<?xml version="1.0" encoding="UTF-8" standalone="no" ?>
<gpx xmlns="http://www.topografix.com/GPX/1/1" xmlns:xsi="http://www.w3.org/2001/XMLSchema-instance" xsi:schemaLocation="http://www.topografix.com/GPX/1/1 http://www.topografix.com/GPX/1/1/gpx.xsd" version="1.1" creator="VisuGPX - https://www.visugpx.com">
  <metadata>
    <name>ainsa</name>
  </metadata>
  <trk>
    <name><![CDATA[Zona zéro 10 et variante18]]></name>
    <extensions>
      <line xmlns="http://www.topografix.com/GPX/gpx_style/0/2">
        <color>0000FF</color>
        <width>4</width>
      </line>
    </extensions>
    <trkseg>
      <trkpt lat="42.44342" lon="0.06576">
        <ele>601.7</ele>
        <time>2016-07-31T07:35:15Z</time>
      </trkpt>
      <trkpt lat="42.44335" lon="0.0657">
        <ele>602.6</ele>
        <time>2016-07-31T07:38:06Z</time>
      </trkpt>
      <trkpt lat="42.44333" lon="0.06574">
        <ele>602.5</ele>
        <time>2016-07-31T07:38:28Z</time>
      </trkpt>
      <trkpt lat="42.44329" lon="0.06574">
        <ele>602.8</ele>
        <time>2016-07-31T07:38:45Z</time>
      </trkpt>
      <trkpt lat="42.44328" lon="0.06568">
        <ele>603.3</ele>
        <time>2016-07-31T07:39:48Z</time>
      </trkpt>
      <trkpt lat="42.44329" lon="0.06563">
        <ele>603.6</ele>
        <time>2016-07-31T07:39:50Z</time>
      </trkpt>
      <trkpt lat="42.4433" lon="0.06558">
        <ele>603.9</ele>
        <time>2016-07-31T07:39:52Z</time>
      </trkpt>
      <trkpt lat="42.44333" lon="0.06554">
        <ele>604.1</ele>
        <time>2016-07-31T07:39:54Z</time>
      </trkpt>
      <trkpt lat="42.44337" lon="0.0655">
        <ele>604.2</ele>
        <time>2016-07-31T07:39:56Z</time>
      </trkpt>
      <trkpt lat="42.44339" lon="0.06548">
        <ele>604.1</ele>
        <time>2016-07-31T07:39:57Z</time>
      </trkpt>
      <trkpt lat="42.44342" lon="0.06547">
        <ele>603.9</ele>
        <time>2016-07-31T07:39:58Z</time>
      </trkpt>
      <trkpt lat="42.44347" lon="0.06546">
        <ele>603.7</ele>
        <time>2016-07-31T07:40:00Z</time>
      </trkpt>
      <trkpt lat="42.4435" lon="0.06545">
        <ele>603.6</ele>
        <time>2016-07-31T07:40:01Z</time>
      </trkpt>
      <trkpt lat="42.44353" lon="0.06543">
        <ele>603.5</ele>
        <time>2016-07-31T07:40:02Z</time>
      </trkpt>
      <trkpt lat="42.44357" lon="0.06541">
        <ele>603.4</ele>
        <time>2016-07-31T07:40:04Z</time>
      </trkpt>
      <trkpt lat="42.44361" lon="0.06538">
        <ele>603.5</ele>
        <time>2016-07-31T07:40:06Z</time>
      </trkpt>
      <trkpt lat="42.44365" lon="0.06536">
        <ele>603.7</ele>
        <time>2016-07-31T07:40:08Z</time>
      </trkpt>
      <trkpt lat="42.44365" lon="0.06531">
        <ele>604.4</ele>
        <time>2016-07-31T07:40:11Z</time>
      </trkpt>
      <trkpt lat="42.44362" lon="0.06528">
        <ele>604.9</ele>
        <time>2016-07-31T07:40:13Z</time>
      </trkpt>
      <trkpt lat="42.4436" lon="0.06526">
        <ele>605.4</ele>
        <time>2016-07-31T07:40:16Z</time>
      </trkpt>
      <trkpt lat="42.44363" lon="0.06524">
        <ele>605.5</ele>
        <time>2016-07-31T07:40:37Z</time>
      </trkpt>
      <trkpt lat="42.44369" lon="0.06528">
        <ele>604.6</ele>
        <time>2016-07-31T07:40:39Z</time>
      </trkpt>
      <trkpt lat="42.44372" lon="0.06531">
        <ele>603.9</ele>
        <time>2016-07-31T07:40:40Z</time>
      </trkpt>
      <trkpt lat="42.44375" lon="0.06534">
        <ele>603.1</ele>
        <time>2016-07-31T07:40:41Z</time>
      </trkpt>
      <trkpt lat="42.44379" lon="0.06538">
        <ele>602.2</ele>
        <time>2016-07-31T07:40:42Z</time>
      </trkpt>
      <trkpt lat="42.44383" lon="0.06541">
        <ele>601.4</ele>
        <time>2016-07-31T07:40:43Z</time>
      </trkpt>
      <trkpt lat="42.44385" lon="0.06543">
        <ele>600.8</ele>
        <time>2016-07-31T07:40:44Z</time>
      </trkpt>
      <trkpt lat="42.44389" lon="0.06546">
        <ele>600.1</ele>
        <time>2016-07-31T07:40:46Z</time>
      </trkpt>
      <trkpt lat="42.44393" lon="0.0655">
        <ele>599.6</ele>
        <time>2016-07-31T07:40:48Z</time>
      </trkpt>
      <trkpt lat="42.44396" lon="0.06556">
        <ele>598.9</ele>
        <time>2016-07-31T07:40:50Z</time>
      </trkpt>
      <trkpt lat="42.44398" lon="0.06559">
        <ele>598.5</ele>
        <time>2016-07-31T07:40:51Z</time>
      </trkpt>
      <trkpt lat="42.44399" lon="0.06563">
        <ele>598.1</ele>
        <time>2016-07-31T07:40:52Z</time>
      </trkpt>
      <trkpt lat="42.44401" lon="0.06566">
        <ele>597.7</ele>
        <time>2016-07-31T07:40:53Z</time>
      </trkpt>
      <trkpt lat="42.44403" lon="0.0657">
        <ele>597.3</ele>
        <time>2016-07-31T07:40:54Z</time>
      </trkpt>
      <trkpt lat="42.44405" lon="0.06573">
        <ele>596.9</ele>
        <time>2016-07-31T07:40:55Z</time>
      </trkpt>
      <trkpt lat="42.44407" lon="0.06577">
        <ele>596.5</ele>
        <time>2016-07-31T07:40:56Z</time>
      </trkpt>
      <trkpt lat="42.44409" lon="0.0658">
        <ele>596.2</ele>
        <time>2016-07-31T07:40:57Z</time>
      </trkpt>
      <trkpt lat="42.4441" lon="0.06584">
        <ele>595.8</ele>
        <time>2016-07-31T07:40:58Z</time>
      </trkpt>
      <trkpt lat="42.44412" lon="0.06588">
        <ele>595.4</ele>
        <time>2016-07-31T07:40:59Z</time>
      </trkpt>
      <trkpt lat="42.44414" lon="0.06591">
        <ele>595.1</ele>
        <time>2016-07-31T07:41:00Z</time>
      </trkpt>
      <trkpt lat="42.44416" lon="0.06595">
        <ele>594.7</ele>
        <time>2016-07-31T07:41:01Z</time>
      </trkpt>
      <trkpt lat="42.44417" lon="0.06598">
        <ele>594.4</ele>
        <time>2016-07-31T07:41:02Z</time>
      </trkpt>
      <trkpt lat="42.44419" lon="0.06601">
        <ele>594.1</ele>
        <time>2016-07-31T07:41:03Z</time>
      </trkpt>
      <trkpt lat="42.44421" lon="0.06605">
        <ele>593.8</ele>
        <time>2016-07-31T07:41:04Z</time>
      </trkpt>
      <trkpt lat="42.44423" lon="0.06608">
        <ele>593.4</ele>
        <time>2016-07-31T07:41:05Z</time>
      </trkpt>
      <trkpt lat="42.44425" lon="0.06611">
        <ele>593.1</ele>
        <time>2016-07-31T07:41:06Z</time>
      </trkpt>
      <trkpt lat="42.44426" lon="0.06614">
        <ele>592.9</ele>
        <time>2016-07-31T07:41:07Z</time>
      </trkpt>
      <trkpt lat="42.44429" lon="0.0662">
        <ele>592.4</ele>
        <time>2016-07-31T07:41:09Z</time>
      </trkpt>
      <trkpt lat="42.44431" lon="0.06624">
        <ele>592</ele>
        <time>2016-07-31T07:41:11Z</time>
      </trkpt>
      <trkpt lat="42.44434" lon="0.06627">
        <ele>591.8</ele>
        <time>2016-07-31T07:41:13Z</time>
      </trkpt>
      <trkpt lat="42.44437" lon="0.06626">
        <ele>591.5</ele>
        <time>2016-07-31T07:41:19Z</time>
      </trkpt>
      <trkpt lat="42.4444" lon="0.06627">
        <ele>591.4</ele>
        <time>2016-07-31T07:41:21Z</time>
      </trkpt>
      <trkpt lat="42.44437" lon="0.06627">
        <ele>591.6</ele>
        <time>2016-07-31T07:41:31Z</time>
      </trkpt>
      <trkpt lat="42.44438" lon="0.06623">
        <ele>591.5</ele>
        <time>2016-07-31T07:41:58Z</time>
      </trkpt>
      <trkpt lat="42.44441" lon="0.06624">
        <ele>591.3</ele>
        <time>2016-07-31T07:42:01Z</time>
      </trkpt>
      <trkpt lat="42.44444" lon="0.06626">
        <ele>591.1</ele>
        <time>2016-07-31T07:42:03Z</time>
      </trkpt>
      <trkpt lat="42.44446" lon="0.06628">
        <ele>591</ele>
        <time>2016-07-31T07:42:05Z</time>
      </trkpt>
      <trkpt lat="42.4445" lon="0.06631">
        <ele>590.8</ele>
        <time>2016-07-31T07:42:07Z</time>
      </trkpt>
      <trkpt lat="42.44455" lon="0.06627">
        <ele>590.4</ele>
        <time>2016-07-31T07:42:09Z</time>
      </trkpt>
      <trkpt lat="42.44457" lon="0.06624">
        <ele>590.2</ele>
        <time>2016-07-31T07:42:10Z</time>
      </trkpt>
      <trkpt lat="42.44459" lon="0.0662">
        <ele>590.3</ele>
        <time>2016-07-31T07:42:11Z</time>
      </trkpt>
      <trkpt lat="42.44462" lon="0.06616">
        <ele>590.9</ele>
        <time>2016-07-31T07:42:12Z</time>
      </trkpt>
      <trkpt lat="42.44464" lon="0.06611">
        <ele>591.4</ele>
        <time>2016-07-31T07:42:13Z</time>
      </trkpt>
      <trkpt lat="42.44467" lon="0.06606">
        <ele>591.9</ele>
        <time>2016-07-31T07:42:14Z</time>
      </trkpt>
      <trkpt lat="42.44469" lon="0.06599">
        <ele>592.3</ele>
        <time>2016-07-31T07:42:15Z</time>
      </trkpt>
      <trkpt lat="42.44472" lon="0.06594">
        <ele>592.7</ele>
        <time>2016-07-31T07:42:16Z</time>
      </trkpt>
      <trkpt lat="42.44476" lon="0.06589">
        <ele>593.1</ele>
        <time>2016-07-31T07:42:17Z</time>
      </trkpt>
      <trkpt lat="42.44479" lon="0.06584">
        <ele>593.4</ele>
        <time>2016-07-31T07:42:18Z</time>
      </trkpt>
      <trkpt lat="42.44482" lon="0.06579">
        <ele>593.5</ele>
        <time>2016-07-31T07:42:19Z</time>
      </trkpt>
      <trkpt lat="42.44485" lon="0.06573">
        <ele>593.6</ele>
        <time>2016-07-31T07:42:20Z</time>
      </trkpt>
      <trkpt lat="42.44489" lon="0.06567">
        <ele>593.6</ele>
        <time>2016-07-31T07:42:21Z</time>
      </trkpt>
      <trkpt lat="42.44493" lon="0.06562">
        <ele>593.5</ele>
        <time>2016-07-31T07:42:22Z</time>
      </trkpt>
      <trkpt lat="42.44496" lon="0.06556">
        <ele>593.4</ele>
        <time>2016-07-31T07:42:23Z</time>
      </trkpt>
      <trkpt lat="42.445" lon="0.06551">
        <ele>593.1</ele>
        <time>2016-07-31T07:42:24Z</time>
      </trkpt>
      <trkpt lat="42.44504" lon="0.06545">
        <ele>592.7</ele>
        <time>2016-07-31T07:42:25Z</time>
      </trkpt>
      <trkpt lat="42.44507" lon="0.06539">
        <ele>592.5</ele>
        <time>2016-07-31T07:42:26Z</time>
      </trkpt>
      <trkpt lat="42.44511" lon="0.06533">
        <ele>592.7</ele>
        <time>2016-07-31T07:42:27Z</time>
      </trkpt>
      <trkpt lat="42.44515" lon="0.06528">
        <ele>592.9</ele>
        <time>2016-07-31T07:42:28Z</time>
      </trkpt>
      <trkpt lat="42.44519" lon="0.06522">
        <ele>593</ele>
        <time>2016-07-31T07:42:29Z</time>
      </trkpt>
      <trkpt lat="42.44523" lon="0.06516">
        <ele>593.1</ele>
        <time>2016-07-31T07:42:30Z</time>
      </trkpt>
      <trkpt lat="42.44526" lon="0.0651">
        <ele>593.2</ele>
        <time>2016-07-31T07:42:31Z</time>
      </trkpt>
      <trkpt lat="42.4453" lon="0.06504">
        <ele>593.3</ele>
        <time>2016-07-31T07:42:32Z</time>
      </trkpt>
      <trkpt lat="42.44534" lon="0.06499">
        <ele>593.3</ele>
        <time>2016-07-31T07:42:33Z</time>
      </trkpt>
      <trkpt lat="42.44538" lon="0.06493">
        <ele>593.3</ele>
        <time>2016-07-31T07:42:34Z</time>
      </trkpt>
      <trkpt lat="42.44542" lon="0.06487">
        <ele>593.3</ele>
        <time>2016-07-31T07:42:35Z</time>
      </trkpt>
      <trkpt lat="42.44546" lon="0.06481">
        <ele>593.5</ele>
        <time>2016-07-31T07:42:36Z</time>
      </trkpt>
      <trkpt lat="42.44549" lon="0.06476">
        <ele>593.6</ele>
        <time>2016-07-31T07:42:37Z</time>
      </trkpt>
      <trkpt lat="42.44553" lon="0.0647">
        <ele>593.7</ele>
        <time>2016-07-31T07:42:38Z</time>
      </trkpt>
      <trkpt lat="42.44557" lon="0.06464">
        <ele>593.7</ele>
        <time>2016-07-31T07:42:39Z</time>
      </trkpt>
      <trkpt lat="42.4456" lon="0.06459">
        <ele>593.8</ele>
        <time>2016-07-31T07:42:40Z</time>
      </trkpt>
      <trkpt lat="42.44564" lon="0.06453">
        <ele>593.8</ele>
        <time>2016-07-31T07:42:41Z</time>
      </trkpt>
      <trkpt lat="42.44567" lon="0.06447">
        <ele>593.9</ele>
        <time>2016-07-31T07:42:42Z</time>
      </trkpt>
      <trkpt lat="42.44571" lon="0.06442">
        <ele>594</ele>
        <time>2016-07-31T07:42:43Z</time>
      </trkpt>
      <trkpt lat="42.44574" lon="0.06436">
        <ele>594</ele>
        <time>2016-07-31T07:42:44Z</time>
      </trkpt>
      <trkpt lat="42.44577" lon="0.06431">
        <ele>594</ele>
        <time>2016-07-31T07:42:45Z</time>
      </trkpt>
      <trkpt lat="42.44582" lon="0.06426">
        <ele>593.9</ele>
        <time>2016-07-31T07:42:46Z</time>
      </trkpt>
      <trkpt lat="42.44585" lon="0.0642">
        <ele>593.9</ele>
        <time>2016-07-31T07:42:47Z</time>
      </trkpt>
      <trkpt lat="42.44589" lon="0.06415">
        <ele>593.8</ele>
        <time>2016-07-31T07:42:48Z</time>
      </trkpt>
      <trkpt lat="42.44592" lon="0.06409">
        <ele>593.7</ele>
        <time>2016-07-31T07:42:49Z</time>
      </trkpt>
      <trkpt lat="42.44596" lon="0.06404">
        <ele>593.6</ele>
        <time>2016-07-31T07:42:50Z</time>
      </trkpt>
      <trkpt lat="42.446" lon="0.06398">
        <ele>593.5</ele>
        <time>2016-07-31T07:42:51Z</time>
      </trkpt>
      <trkpt lat="42.44603" lon="0.06393">
        <ele>593.3</ele>
        <time>2016-07-31T07:42:52Z</time>
      </trkpt>
      <trkpt lat="42.44606" lon="0.06388">
        <ele>593.1</ele>
        <time>2016-07-31T07:42:53Z</time>
      </trkpt>
      <trkpt lat="42.4461" lon="0.06383">
        <ele>593</ele>
        <time>2016-07-31T07:42:54Z</time>
      </trkpt>
      <trkpt lat="42.44613" lon="0.06377">
        <ele>592.7</ele>
        <time>2016-07-31T07:42:55Z</time>
      </trkpt>
      <trkpt lat="42.44616" lon="0.06372">
        <ele>592.6</ele>
        <time>2016-07-31T07:42:56Z</time>
      </trkpt>
      <trkpt lat="42.44619" lon="0.06367">
        <ele>592.6</ele>
        <time>2016-07-31T07:42:57Z</time>
      </trkpt>
      <trkpt lat="42.44622" lon="0.06362">
        <ele>592.5</ele>
        <time>2016-07-31T07:42:58Z</time>
      </trkpt>
      <trkpt lat="42.44626" lon="0.06357">
        <ele>592.5</ele>
        <time>2016-07-31T07:42:59Z</time>
      </trkpt>
      <trkpt lat="42.44629" lon="0.06351">
        <ele>592.8</ele>
        <time>2016-07-31T07:43:00Z</time>
      </trkpt>
      <trkpt lat="42.44633" lon="0.06346">
        <ele>593.1</ele>
        <time>2016-07-31T07:43:01Z</time>
      </trkpt>
      <trkpt lat="42.44636" lon="0.06341">
        <ele>593.4</ele>
        <time>2016-07-31T07:43:02Z</time>
      </trkpt>
      <trkpt lat="42.44639" lon="0.06336">
        <ele>593.7</ele>
        <time>2016-07-31T07:43:03Z</time>
      </trkpt>
      <trkpt lat="42.44642" lon="0.06331">
        <ele>594</ele>
        <time>2016-07-31T07:43:04Z</time>
      </trkpt>
      <trkpt lat="42.44646" lon="0.06326">
        <ele>594.3</ele>
        <time>2016-07-31T07:43:05Z</time>
      </trkpt>
      <trkpt lat="42.44649" lon="0.06321">
        <ele>594.5</ele>
        <time>2016-07-31T07:43:06Z</time>
      </trkpt>
      <trkpt lat="42.44652" lon="0.06316">
        <ele>594.8</ele>
        <time>2016-07-31T07:43:07Z</time>
      </trkpt>
      <trkpt lat="42.44655" lon="0.06311">
        <ele>595.1</ele>
        <time>2016-07-31T07:43:08Z</time>
      </trkpt>
      <trkpt lat="42.44658" lon="0.06306">
        <ele>595.3</ele>
        <time>2016-07-31T07:43:09Z</time>
      </trkpt>
      <trkpt lat="42.44662" lon="0.063">
        <ele>595.6</ele>
        <time>2016-07-31T07:43:10Z</time>
      </trkpt>
      <trkpt lat="42.44665" lon="0.06296">
        <ele>595.9</ele>
        <time>2016-07-31T07:43:11Z</time>
      </trkpt>
      <trkpt lat="42.44668" lon="0.06291">
        <ele>596.1</ele>
        <time>2016-07-31T07:43:12Z</time>
      </trkpt>
      <trkpt lat="42.44671" lon="0.06286">
        <ele>596.3</ele>
        <time>2016-07-31T07:43:13Z</time>
      </trkpt>
      <trkpt lat="42.44675" lon="0.06281">
        <ele>596.4</ele>
        <time>2016-07-31T07:43:14Z</time>
      </trkpt>
      <trkpt lat="42.44677" lon="0.06275">
        <ele>596.6</ele>
        <time>2016-07-31T07:43:15Z</time>
      </trkpt>
      <trkpt lat="42.44681" lon="0.0627">
        <ele>596.8</ele>
        <time>2016-07-31T07:43:16Z</time>
      </trkpt>
      <trkpt lat="42.44684" lon="0.06265">
        <ele>596.9</ele>
        <time>2016-07-31T07:43:17Z</time>
      </trkpt>
      <trkpt lat="42.44687" lon="0.0626">
        <ele>597.1</ele>
        <time>2016-07-31T07:43:18Z</time>
      </trkpt>
      <trkpt lat="42.4469" lon="0.06255">
        <ele>597.2</ele>
        <time>2016-07-31T07:43:19Z</time>
      </trkpt>
      <trkpt lat="42.44694" lon="0.0625">
        <ele>597.4</ele>
        <time>2016-07-31T07:43:20Z</time>
      </trkpt>
      <trkpt lat="42.44697" lon="0.06245">
        <ele>597.5</ele>
        <time>2016-07-31T07:43:21Z</time>
      </trkpt>
      <trkpt lat="42.447" lon="0.0624">
        <ele>597.6</ele>
        <time>2016-07-31T07:43:22Z</time>
      </trkpt>
      <trkpt lat="42.44703" lon="0.06235">
        <ele>597.8</ele>
        <time>2016-07-31T07:43:23Z</time>
      </trkpt>
      <trkpt lat="42.44706" lon="0.06231">
        <ele>597.9</ele>
        <time>2016-07-31T07:43:24Z</time>
      </trkpt>
      <trkpt lat="42.4471" lon="0.06226">
        <ele>598.1</ele>
        <time>2016-07-31T07:43:25Z</time>
      </trkpt>
      <trkpt lat="42.44713" lon="0.06221">
        <ele>598.2</ele>
        <time>2016-07-31T07:43:26Z</time>
      </trkpt>
      <trkpt lat="42.44716" lon="0.06216">
        <ele>598.4</ele>
        <time>2016-07-31T07:43:27Z</time>
      </trkpt>
      <trkpt lat="42.44719" lon="0.0621">
        <ele>598.5</ele>
        <time>2016-07-31T07:43:28Z</time>
      </trkpt>
      <trkpt lat="42.44722" lon="0.06205">
        <ele>598.7</ele>
        <time>2016-07-31T07:43:29Z</time>
      </trkpt>
      <trkpt lat="42.44725" lon="0.06199">
        <ele>598.9</ele>
        <time>2016-07-31T07:43:30Z</time>
      </trkpt>
      <trkpt lat="42.44728" lon="0.06195">
        <ele>599</ele>
        <time>2016-07-31T07:43:31Z</time>
      </trkpt>
      <trkpt lat="42.44732" lon="0.0619">
        <ele>599.2</ele>
        <time>2016-07-31T07:43:32Z</time>
      </trkpt>
      <trkpt lat="42.44735" lon="0.06185">
        <ele>599.4</ele>
        <time>2016-07-31T07:43:33Z</time>
      </trkpt>
      <trkpt lat="42.44738" lon="0.0618">
        <ele>599.5</ele>
        <time>2016-07-31T07:43:34Z</time>
      </trkpt>
      <trkpt lat="42.44741" lon="0.06175">
        <ele>599.7</ele>
        <time>2016-07-31T07:43:35Z</time>
      </trkpt>
      <trkpt lat="42.44744" lon="0.06169">
        <ele>599.8</ele>
        <time>2016-07-31T07:43:36Z</time>
      </trkpt>
      <trkpt lat="42.44748" lon="0.06164">
        <ele>599.9</ele>
        <time>2016-07-31T07:43:37Z</time>
      </trkpt>
      <trkpt lat="42.44751" lon="0.06158">
        <ele>600</ele>
        <time>2016-07-31T07:43:38Z</time>
      </trkpt>
      <trkpt lat="42.44755" lon="0.06153">
        <ele>600.2</ele>
        <time>2016-07-31T07:43:39Z</time>
      </trkpt>
      <trkpt lat="42.44758" lon="0.06147">
        <ele>600.2</ele>
        <time>2016-07-31T07:43:40Z</time>
      </trkpt>
      <trkpt lat="42.44762" lon="0.06141">
        <ele>600.3</ele>
        <time>2016-07-31T07:43:41Z</time>
      </trkpt>
      <trkpt lat="42.44765" lon="0.06137">
        <ele>600.4</ele>
        <time>2016-07-31T07:43:42Z</time>
      </trkpt>
      <trkpt lat="42.44769" lon="0.06131">
        <ele>600.5</ele>
        <time>2016-07-31T07:43:43Z</time>
      </trkpt>
      <trkpt lat="42.44772" lon="0.06124">
        <ele>600.5</ele>
        <time>2016-07-31T07:43:44Z</time>
      </trkpt>
      <trkpt lat="42.44775" lon="0.06119">
        <ele>600.7</ele>
        <time>2016-07-31T07:43:45Z</time>
      </trkpt>
      <trkpt lat="42.44779" lon="0.06115">
        <ele>600.8</ele>
        <time>2016-07-31T07:43:46Z</time>
      </trkpt>
      <trkpt lat="42.44782" lon="0.06109">
        <ele>601</ele>
        <time>2016-07-31T07:43:47Z</time>
      </trkpt>
      <trkpt lat="42.44786" lon="0.06102">
        <ele>601.1</ele>
        <time>2016-07-31T07:43:48Z</time>
      </trkpt>
      <trkpt lat="42.44789" lon="0.06097">
        <ele>601.3</ele>
        <time>2016-07-31T07:43:49Z</time>
      </trkpt>
      <trkpt lat="42.44792" lon="0.06092">
        <ele>601.4</ele>
        <time>2016-07-31T07:43:50Z</time>
      </trkpt>
      <trkpt lat="42.44795" lon="0.06087">
        <ele>601.5</ele>
        <time>2016-07-31T07:43:51Z</time>
      </trkpt>
      <trkpt lat="42.44799" lon="0.06082">
        <ele>601.7</ele>
        <time>2016-07-31T07:43:52Z</time>
      </trkpt>
      <trkpt lat="42.44802" lon="0.06076">
        <ele>601.8</ele>
        <time>2016-07-31T07:43:53Z</time>
      </trkpt>
      <trkpt lat="42.44806" lon="0.06071">
        <ele>601.9</ele>
        <time>2016-07-31T07:43:54Z</time>
      </trkpt>
      <trkpt lat="42.44809" lon="0.06066">
        <ele>602</ele>
        <time>2016-07-31T07:43:55Z</time>
      </trkpt>
      <trkpt lat="42.44813" lon="0.0606">
        <ele>602.1</ele>
        <time>2016-07-31T07:43:56Z</time>
      </trkpt>
      <trkpt lat="42.44816" lon="0.06054">
        <ele>602.2</ele>
        <time>2016-07-31T07:43:57Z</time>
      </trkpt>
      <trkpt lat="42.4482" lon="0.06049">
        <ele>602.3</ele>
        <time>2016-07-31T07:43:58Z</time>
      </trkpt>
      <trkpt lat="42.44823" lon="0.06044">
        <ele>602.4</ele>
        <time>2016-07-31T07:43:59Z</time>
      </trkpt>
      <trkpt lat="42.44827" lon="0.06038">
        <ele>602.3</ele>
        <time>2016-07-31T07:44:00Z</time>
      </trkpt>
      <trkpt lat="42.4483" lon="0.06033">
        <ele>602.2</ele>
        <time>2016-07-31T07:44:01Z</time>
      </trkpt>
      <trkpt lat="42.44834" lon="0.06028">
        <ele>602.1</ele>
        <time>2016-07-31T07:44:02Z</time>
      </trkpt>
      <trkpt lat="42.44837" lon="0.06022">
        <ele>601.9</ele>
        <time>2016-07-31T07:44:03Z</time>
      </trkpt>
      <trkpt lat="42.44841" lon="0.06016">
        <ele>601.8</ele>
        <time>2016-07-31T07:44:04Z</time>
      </trkpt>
      <trkpt lat="42.44845" lon="0.0601">
        <ele>601.6</ele>
        <time>2016-07-31T07:44:05Z</time>
      </trkpt>
      <trkpt lat="42.44848" lon="0.06005">
        <ele>601.5</ele>
        <time>2016-07-31T07:44:06Z</time>
      </trkpt>
      <trkpt lat="42.44852" lon="0.05998">
        <ele>601.3</ele>
        <time>2016-07-31T07:44:07Z</time>
      </trkpt>
      <trkpt lat="42.44855" lon="0.05993">
        <ele>601.1</ele>
        <time>2016-07-31T07:44:08Z</time>
      </trkpt>
      <trkpt lat="42.44858" lon="0.05987">
        <ele>601</ele>
        <time>2016-07-31T07:44:09Z</time>
      </trkpt>
      <trkpt lat="42.44862" lon="0.05982">
        <ele>600.8</ele>
        <time>2016-07-31T07:44:10Z</time>
      </trkpt>
      <trkpt lat="42.44866" lon="0.05976">
        <ele>600.6</ele>
        <time>2016-07-31T07:44:11Z</time>
      </trkpt>
      <trkpt lat="42.4487" lon="0.0597">
        <ele>600.4</ele>
        <time>2016-07-31T07:44:12Z</time>
      </trkpt>
      <trkpt lat="42.44873" lon="0.05965">
        <ele>600.2</ele>
        <time>2016-07-31T07:44:13Z</time>
      </trkpt>
      <trkpt lat="42.44878" lon="0.05959">
        <ele>600.2</ele>
        <time>2016-07-31T07:44:14Z</time>
      </trkpt>
      <trkpt lat="42.44881" lon="0.05954">
        <ele>600.3</ele>
        <time>2016-07-31T07:44:15Z</time>
      </trkpt>
      <trkpt lat="42.44885" lon="0.05948">
        <ele>600.4</ele>
        <time>2016-07-31T07:44:16Z</time>
      </trkpt>
      <trkpt lat="42.44889" lon="0.05942">
        <ele>600.6</ele>
        <time>2016-07-31T07:44:17Z</time>
      </trkpt>
      <trkpt lat="42.44893" lon="0.05937">
        <ele>600.7</ele>
        <time>2016-07-31T07:44:18Z</time>
      </trkpt>
      <trkpt lat="42.44896" lon="0.05929">
        <ele>600.7</ele>
        <time>2016-07-31T07:44:19Z</time>
      </trkpt>
      <trkpt lat="42.44899" lon="0.05925">
        <ele>600.8</ele>
        <time>2016-07-31T07:44:20Z</time>
      </trkpt>
      <trkpt lat="42.44903" lon="0.05919">
        <ele>600.9</ele>
        <time>2016-07-31T07:44:21Z</time>
      </trkpt>
      <trkpt lat="42.44907" lon="0.05914">
        <ele>601</ele>
        <time>2016-07-31T07:44:22Z</time>
      </trkpt>
      <trkpt lat="42.4491" lon="0.05909">
        <ele>601</ele>
        <time>2016-07-31T07:44:23Z</time>
      </trkpt>
      <trkpt lat="42.44914" lon="0.05904">
        <ele>601.1</ele>
        <time>2016-07-31T07:44:24Z</time>
      </trkpt>
      <trkpt lat="42.44919" lon="0.05897">
        <ele>601.1</ele>
        <time>2016-07-31T07:44:25Z</time>
      </trkpt>
      <trkpt lat="42.44922" lon="0.0589">
        <ele>601.1</ele>
        <time>2016-07-31T07:44:26Z</time>
      </trkpt>
      <trkpt lat="42.44925" lon="0.05885">
        <ele>601.1</ele>
        <time>2016-07-31T07:44:27Z</time>
      </trkpt>
      <trkpt lat="42.44929" lon="0.05881">
        <ele>601.1</ele>
        <time>2016-07-31T07:44:28Z</time>
      </trkpt>
      <trkpt lat="42.44933" lon="0.05876">
        <ele>601.1</ele>
        <time>2016-07-31T07:44:29Z</time>
      </trkpt>
      <trkpt lat="42.44936" lon="0.05871">
        <ele>601.1</ele>
        <time>2016-07-31T07:44:30Z</time>
      </trkpt>
      <trkpt lat="42.4494" lon="0.05866">
        <ele>601.2</ele>
        <time>2016-07-31T07:44:31Z</time>
      </trkpt>
      <trkpt lat="42.44943" lon="0.05861">
        <ele>601.2</ele>
        <time>2016-07-31T07:44:32Z</time>
      </trkpt>
      <trkpt lat="42.44945" lon="0.05856">
        <ele>601.1</ele>
        <time>2016-07-31T07:44:33Z</time>
      </trkpt>
      <trkpt lat="42.44948" lon="0.05851">
        <ele>601.1</ele>
        <time>2016-07-31T07:44:34Z</time>
      </trkpt>
      <trkpt lat="42.44952" lon="0.05845">
        <ele>601.1</ele>
        <time>2016-07-31T07:44:35Z</time>
      </trkpt>
      <trkpt lat="42.44956" lon="0.0584">
        <ele>601.1</ele>
        <time>2016-07-31T07:44:36Z</time>
      </trkpt>
      <trkpt lat="42.44961" lon="0.05833">
        <ele>601.4</ele>
        <time>2016-07-31T07:44:37Z</time>
      </trkpt>
      <trkpt lat="42.44965" lon="0.05827">
        <ele>601.7</ele>
        <time>2016-07-31T07:44:38Z</time>
      </trkpt>
      <trkpt lat="42.44969" lon="0.05821">
        <ele>602</ele>
        <time>2016-07-31T07:44:39Z</time>
      </trkpt>
      <trkpt lat="42.44972" lon="0.05816">
        <ele>602.2</ele>
        <time>2016-07-31T07:44:40Z</time>
      </trkpt>
      <trkpt lat="42.44976" lon="0.05812">
        <ele>602.5</ele>
        <time>2016-07-31T07:44:41Z</time>
      </trkpt>
      <trkpt lat="42.4498" lon="0.05806">
        <ele>602.6</ele>
        <time>2016-07-31T07:44:42Z</time>
      </trkpt>
      <trkpt lat="42.44984" lon="0.05802">
        <ele>602.8</ele>
        <time>2016-07-31T07:44:43Z</time>
      </trkpt>
      <trkpt lat="42.44989" lon="0.05798">
        <ele>602.9</ele>
        <time>2016-07-31T07:44:44Z</time>
      </trkpt>
      <trkpt lat="42.44992" lon="0.05793">
        <ele>602.9</ele>
        <time>2016-07-31T07:44:45Z</time>
      </trkpt>
      <trkpt lat="42.44996" lon="0.05785">
        <ele>603</ele>
        <time>2016-07-31T07:44:46Z</time>
      </trkpt>
      <trkpt lat="42.45" lon="0.0578">
        <ele>603.2</ele>
        <time>2016-07-31T07:44:47Z</time>
      </trkpt>
      <trkpt lat="42.45004" lon="0.05776">
        <ele>603.4</ele>
        <time>2016-07-31T07:44:48Z</time>
      </trkpt>
      <trkpt lat="42.45007" lon="0.05773">
        <ele>603.4</ele>
        <time>2016-07-31T07:44:49Z</time>
      </trkpt>
      <trkpt lat="42.45011" lon="0.05769">
        <ele>603.5</ele>
        <time>2016-07-31T07:44:50Z</time>
      </trkpt>
      <trkpt lat="42.45015" lon="0.05765">
        <ele>603.5</ele>
        <time>2016-07-31T07:44:51Z</time>
      </trkpt>
      <trkpt lat="42.45019" lon="0.05762">
        <ele>603.6</ele>
        <time>2016-07-31T07:44:52Z</time>
      </trkpt>
      <trkpt lat="42.45023" lon="0.05756">
        <ele>603.4</ele>
        <time>2016-07-31T07:44:53Z</time>
      </trkpt>
      <trkpt lat="42.45026" lon="0.0575">
        <ele>603.1</ele>
        <time>2016-07-31T07:44:54Z</time>
      </trkpt>
      <trkpt lat="42.45028" lon="0.05744">
        <ele>602.8</ele>
        <time>2016-07-31T07:44:55Z</time>
      </trkpt>
      <trkpt lat="42.45028" lon="0.05738">
        <ele>602.4</ele>
        <time>2016-07-31T07:44:56Z</time>
      </trkpt>
      <trkpt lat="42.45025" lon="0.05731">
        <ele>602</ele>
        <time>2016-07-31T07:44:57Z</time>
      </trkpt>
      <trkpt lat="42.45023" lon="0.05724">
        <ele>601.6</ele>
        <time>2016-07-31T07:44:58Z</time>
      </trkpt>
      <trkpt lat="42.45021" lon="0.05717">
        <ele>601.2</ele>
        <time>2016-07-31T07:44:59Z</time>
      </trkpt>
      <trkpt lat="42.45019" lon="0.0571">
        <ele>600.9</ele>
        <time>2016-07-31T07:45:00Z</time>
      </trkpt>
      <trkpt lat="42.45018" lon="0.05703">
        <ele>601.8</ele>
        <time>2016-07-31T07:45:01Z</time>
      </trkpt>
      <trkpt lat="42.45016" lon="0.05697">
        <ele>603.1</ele>
        <time>2016-07-31T07:45:02Z</time>
      </trkpt>
      <trkpt lat="42.45013" lon="0.0569">
        <ele>604.6</ele>
        <time>2016-07-31T07:45:03Z</time>
      </trkpt>
      <trkpt lat="42.45009" lon="0.05682">
        <ele>606.3</ele>
        <time>2016-07-31T07:45:04Z</time>
      </trkpt>
      <trkpt lat="42.45007" lon="0.05675">
        <ele>608</ele>
        <time>2016-07-31T07:45:05Z</time>
      </trkpt>
      <trkpt lat="42.45005" lon="0.05667">
        <ele>609.7</ele>
        <time>2016-07-31T07:45:06Z</time>
      </trkpt>
      <trkpt lat="42.45002" lon="0.0566">
        <ele>611.5</ele>
        <time>2016-07-31T07:45:07Z</time>
      </trkpt>
      <trkpt lat="42.44999" lon="0.05653">
        <ele>613.3</ele>
        <time>2016-07-31T07:45:08Z</time>
      </trkpt>
      <trkpt lat="42.44997" lon="0.05646">
        <ele>614.9</ele>
        <time>2016-07-31T07:45:09Z</time>
      </trkpt>
      <trkpt lat="42.44995" lon="0.0564">
        <ele>616.5</ele>
        <time>2016-07-31T07:45:10Z</time>
      </trkpt>
      <trkpt lat="42.44993" lon="0.05634">
        <ele>618</ele>
        <time>2016-07-31T07:45:11Z</time>
      </trkpt>
      <trkpt lat="42.44991" lon="0.05628">
        <ele>619.6</ele>
        <time>2016-07-31T07:45:12Z</time>
      </trkpt>
      <trkpt lat="42.44988" lon="0.05623">
        <ele>621.5</ele>
        <time>2016-07-31T07:45:13Z</time>
      </trkpt>
      <trkpt lat="42.44986" lon="0.05617">
        <ele>623.6</ele>
        <time>2016-07-31T07:45:14Z</time>
      </trkpt>
      <trkpt lat="42.44983" lon="0.05611">
        <ele>625.9</ele>
        <time>2016-07-31T07:45:15Z</time>
      </trkpt>
      <trkpt lat="42.4498" lon="0.05606">
        <ele>627.9</ele>
        <time>2016-07-31T07:45:16Z</time>
      </trkpt>
      <trkpt lat="42.44977" lon="0.05602">
        <ele>629.8</ele>
        <time>2016-07-31T07:45:17Z</time>
      </trkpt>
      <trkpt lat="42.44974" lon="0.05598">
        <ele>631.5</ele>
        <time>2016-07-31T07:45:18Z</time>
      </trkpt>
      <trkpt lat="42.4497" lon="0.05595">
        <ele>633.1</ele>
        <time>2016-07-31T07:45:19Z</time>
      </trkpt>
      <trkpt lat="42.44967" lon="0.05593">
        <ele>634.5</ele>
        <time>2016-07-31T07:45:20Z</time>
      </trkpt>
      <trkpt lat="42.44964" lon="0.0559">
        <ele>635.9</ele>
        <time>2016-07-31T07:45:21Z</time>
      </trkpt>
      <trkpt lat="42.4496" lon="0.05588">
        <ele>637.4</ele>
        <time>2016-07-31T07:45:22Z</time>
      </trkpt>
      <trkpt lat="42.44956" lon="0.05585">
        <ele>638.7</ele>
        <time>2016-07-31T07:45:23Z</time>
      </trkpt>
      <trkpt lat="42.44952" lon="0.05585">
        <ele>639.5</ele>
        <time>2016-07-31T07:45:24Z</time>
      </trkpt>
      <trkpt lat="42.44949" lon="0.05582">
        <ele>640.8</ele>
        <time>2016-07-31T07:45:25Z</time>
      </trkpt>
      <trkpt lat="42.44945" lon="0.05582">
        <ele>641.6</ele>
        <time>2016-07-31T07:45:26Z</time>
      </trkpt>
      <trkpt lat="42.44941" lon="0.05581">
        <ele>642.4</ele>
        <time>2016-07-31T07:45:27Z</time>
      </trkpt>
      <trkpt lat="42.44937" lon="0.05581">
        <ele>643</ele>
        <time>2016-07-31T07:45:28Z</time>
      </trkpt>
      <trkpt lat="42.44934" lon="0.05581">
        <ele>643.5</ele>
        <time>2016-07-31T07:45:29Z</time>
      </trkpt>
      <trkpt lat="42.44931" lon="0.05581">
        <ele>643.9</ele>
        <time>2016-07-31T07:45:30Z</time>
      </trkpt>
      <trkpt lat="42.44927" lon="0.05582">
        <ele>644.3</ele>
        <time>2016-07-31T07:45:31Z</time>
      </trkpt>
      <trkpt lat="42.44924" lon="0.05582">
        <ele>644.6</ele>
        <time>2016-07-31T07:45:32Z</time>
      </trkpt>
      <trkpt lat="42.44921" lon="0.05584">
        <ele>644.7</ele>
        <time>2016-07-31T07:45:33Z</time>
      </trkpt>
      <trkpt lat="42.44917" lon="0.05585">
        <ele>644.9</ele>
        <time>2016-07-31T07:45:34Z</time>
      </trkpt>
      <trkpt lat="42.44914" lon="0.05586">
        <ele>645.1</ele>
        <time>2016-07-31T07:45:35Z</time>
      </trkpt>
      <trkpt lat="42.44911" lon="0.05588">
        <ele>645.2</ele>
        <time>2016-07-31T07:45:36Z</time>
      </trkpt>
      <trkpt lat="42.44908" lon="0.05589">
        <ele>645.3</ele>
        <time>2016-07-31T07:45:37Z</time>
      </trkpt>
      <trkpt lat="42.44904" lon="0.05591">
        <ele>645.5</ele>
        <time>2016-07-31T07:45:38Z</time>
      </trkpt>
      <trkpt lat="42.44901" lon="0.05592">
        <ele>645.7</ele>
        <time>2016-07-31T07:45:39Z</time>
      </trkpt>
      <trkpt lat="42.44898" lon="0.05594">
        <ele>645.8</ele>
        <time>2016-07-31T07:45:40Z</time>
      </trkpt>
      <trkpt lat="42.44895" lon="0.05595">
        <ele>646</ele>
        <time>2016-07-31T07:45:41Z</time>
      </trkpt>
      <trkpt lat="42.44892" lon="0.05597">
        <ele>646.2</ele>
        <time>2016-07-31T07:45:42Z</time>
      </trkpt>
      <trkpt lat="42.44889" lon="0.05598">
        <ele>646.4</ele>
        <time>2016-07-31T07:45:43Z</time>
      </trkpt>
      <trkpt lat="42.44886" lon="0.056">
        <ele>646.5</ele>
        <time>2016-07-31T07:45:44Z</time>
      </trkpt>
      <trkpt lat="42.44883" lon="0.05602">
        <ele>646.6</ele>
        <time>2016-07-31T07:45:45Z</time>
      </trkpt>
      <trkpt lat="42.4488" lon="0.05604">
        <ele>646.6</ele>
        <time>2016-07-31T07:45:46Z</time>
      </trkpt>
      <trkpt lat="42.44877" lon="0.05606">
        <ele>646.6</ele>
        <time>2016-07-31T07:45:47Z</time>
      </trkpt>
      <trkpt lat="42.44874" lon="0.05609">
        <ele>646.4</ele>
        <time>2016-07-31T07:45:48Z</time>
      </trkpt>
      <trkpt lat="42.44872" lon="0.05611">
        <ele>645.3</ele>
        <time>2016-07-31T07:45:49Z</time>
      </trkpt>
      <trkpt lat="42.44869" lon="0.05614">
        <ele>644.2</ele>
        <time>2016-07-31T07:45:50Z</time>
      </trkpt>
      <trkpt lat="42.44866" lon="0.05617">
        <ele>643</ele>
        <time>2016-07-31T07:45:51Z</time>
      </trkpt>
      <trkpt lat="42.44864" lon="0.0562">
        <ele>641.8</ele>
        <time>2016-07-31T07:45:52Z</time>
      </trkpt>
      <trkpt lat="42.44862" lon="0.05623">
        <ele>640.7</ele>
        <time>2016-07-31T07:45:53Z</time>
      </trkpt>
      <trkpt lat="42.4486" lon="0.05627">
        <ele>639.4</ele>
        <time>2016-07-31T07:45:54Z</time>
      </trkpt>
      <trkpt lat="42.44858" lon="0.0563">
        <ele>638.1</ele>
        <time>2016-07-31T07:45:55Z</time>
      </trkpt>
      <trkpt lat="42.44855" lon="0.05633">
        <ele>636.7</ele>
        <time>2016-07-31T07:45:56Z</time>
      </trkpt>
      <trkpt lat="42.44852" lon="0.05636">
        <ele>635.3</ele>
        <time>2016-07-31T07:45:57Z</time>
      </trkpt>
      <trkpt lat="42.4485" lon="0.05639">
        <ele>634</ele>
        <time>2016-07-31T07:45:58Z</time>
      </trkpt>
      <trkpt lat="42.44847" lon="0.05642">
        <ele>632.8</ele>
        <time>2016-07-31T07:45:59Z</time>
      </trkpt>
      <trkpt lat="42.44844" lon="0.05646">
        <ele>631.5</ele>
        <time>2016-07-31T07:46:00Z</time>
      </trkpt>
      <trkpt lat="42.44842" lon="0.05649">
        <ele>630.2</ele>
        <time>2016-07-31T07:46:01Z</time>
      </trkpt>
      <trkpt lat="42.44839" lon="0.05652">
        <ele>629</ele>
        <time>2016-07-31T07:46:02Z</time>
      </trkpt>
      <trkpt lat="42.44836" lon="0.05655">
        <ele>627.8</ele>
        <time>2016-07-31T07:46:03Z</time>
      </trkpt>
      <trkpt lat="42.44833" lon="0.05659">
        <ele>626.7</ele>
        <time>2016-07-31T07:46:04Z</time>
      </trkpt>
      <trkpt lat="42.44831" lon="0.05662">
        <ele>625.5</ele>
        <time>2016-07-31T07:46:05Z</time>
      </trkpt>
      <trkpt lat="42.44828" lon="0.05665">
        <ele>624.4</ele>
        <time>2016-07-31T07:46:06Z</time>
      </trkpt>
      <trkpt lat="42.44825" lon="0.05669">
        <ele>623.3</ele>
        <time>2016-07-31T07:46:07Z</time>
      </trkpt>
      <trkpt lat="42.44822" lon="0.05672">
        <ele>622.3</ele>
        <time>2016-07-31T07:46:08Z</time>
      </trkpt>
      <trkpt lat="42.44819" lon="0.05675">
        <ele>621.3</ele>
        <time>2016-07-31T07:46:09Z</time>
      </trkpt>
      <trkpt lat="42.44816" lon="0.05678">
        <ele>620.4</ele>
        <time>2016-07-31T07:46:10Z</time>
      </trkpt>
      <trkpt lat="42.44813" lon="0.0568">
        <ele>619.5</ele>
        <time>2016-07-31T07:46:11Z</time>
      </trkpt>
      <trkpt lat="42.44809" lon="0.05683">
        <ele>618.7</ele>
        <time>2016-07-31T07:46:12Z</time>
      </trkpt>
      <trkpt lat="42.44805" lon="0.05685">
        <ele>617.9</ele>
        <time>2016-07-31T07:46:13Z</time>
      </trkpt>
      <trkpt lat="42.448" lon="0.05686">
        <ele>617.3</ele>
        <time>2016-07-31T07:46:14Z</time>
      </trkpt>
      <trkpt lat="42.44795" lon="0.05686">
        <ele>616.8</ele>
        <time>2016-07-31T07:46:15Z</time>
      </trkpt>
      <trkpt lat="42.44791" lon="0.05685">
        <ele>616.9</ele>
        <time>2016-07-31T07:46:16Z</time>
      </trkpt>
      <trkpt lat="42.44786" lon="0.05682">
        <ele>618.4</ele>
        <time>2016-07-31T07:46:17Z</time>
      </trkpt>
      <trkpt lat="42.44783" lon="0.05678">
        <ele>619.8</ele>
        <time>2016-07-31T07:46:18Z</time>
      </trkpt>
      <trkpt lat="42.44781" lon="0.05673">
        <ele>620.9</ele>
        <time>2016-07-31T07:46:19Z</time>
      </trkpt>
      <trkpt lat="42.44778" lon="0.05668">
        <ele>622.1</ele>
        <time>2016-07-31T07:46:20Z</time>
      </trkpt>
      <trkpt lat="42.44776" lon="0.05663">
        <ele>623.1</ele>
        <time>2016-07-31T07:46:21Z</time>
      </trkpt>
      <trkpt lat="42.44773" lon="0.05656">
        <ele>624.3</ele>
        <time>2016-07-31T07:46:22Z</time>
      </trkpt>
      <trkpt lat="42.44773" lon="0.05649">
        <ele>625</ele>
        <time>2016-07-31T07:46:23Z</time>
      </trkpt>
      <trkpt lat="42.44773" lon="0.05643">
        <ele>625.6</ele>
        <time>2016-07-31T07:46:24Z</time>
      </trkpt>
      <trkpt lat="42.44773" lon="0.05636">
        <ele>626.3</ele>
        <time>2016-07-31T07:46:25Z</time>
      </trkpt>
      <trkpt lat="42.44773" lon="0.05629">
        <ele>627</ele>
        <time>2016-07-31T07:46:26Z</time>
      </trkpt>
      <trkpt lat="42.44772" lon="0.05624">
        <ele>627.6</ele>
        <time>2016-07-31T07:46:27Z</time>
      </trkpt>
      <trkpt lat="42.44771" lon="0.05619">
        <ele>628.4</ele>
        <time>2016-07-31T07:46:28Z</time>
      </trkpt>
      <trkpt lat="42.44769" lon="0.05613">
        <ele>629.5</ele>
        <time>2016-07-31T07:46:29Z</time>
      </trkpt>
      <trkpt lat="42.44767" lon="0.05608">
        <ele>630.4</ele>
        <time>2016-07-31T07:46:30Z</time>
      </trkpt>
      <trkpt lat="42.44764" lon="0.05602">
        <ele>631.3</ele>
        <time>2016-07-31T07:46:31Z</time>
      </trkpt>
      <trkpt lat="42.44762" lon="0.05598">
        <ele>631.9</ele>
        <time>2016-07-31T07:46:32Z</time>
      </trkpt>
      <trkpt lat="42.44759" lon="0.05593">
        <ele>632.5</ele>
        <time>2016-07-31T07:46:33Z</time>
      </trkpt>
      <trkpt lat="42.44756" lon="0.05589">
        <ele>632.8</ele>
        <time>2016-07-31T07:46:34Z</time>
      </trkpt>
      <trkpt lat="42.44752" lon="0.05585">
        <ele>632.9</ele>
        <time>2016-07-31T07:46:35Z</time>
      </trkpt>
      <trkpt lat="42.44749" lon="0.05581">
        <ele>633.1</ele>
        <time>2016-07-31T07:46:36Z</time>
      </trkpt>
      <trkpt lat="42.44745" lon="0.05577">
        <ele>633.2</ele>
        <time>2016-07-31T07:46:37Z</time>
      </trkpt>
      <trkpt lat="42.44742" lon="0.05574">
        <ele>633</ele>
        <time>2016-07-31T07:46:38Z</time>
      </trkpt>
      <trkpt lat="42.44739" lon="0.05569">
        <ele>633</ele>
        <time>2016-07-31T07:46:39Z</time>
      </trkpt>
      <trkpt lat="42.44736" lon="0.05566">
        <ele>632.8</ele>
        <time>2016-07-31T07:46:40Z</time>
      </trkpt>
      <trkpt lat="42.44732" lon="0.05563">
        <ele>632.5</ele>
        <time>2016-07-31T07:46:41Z</time>
      </trkpt>
      <trkpt lat="42.4473" lon="0.0556">
        <ele>632.3</ele>
        <time>2016-07-31T07:46:42Z</time>
      </trkpt>
      <trkpt lat="42.44729" lon="0.05557">
        <ele>632</ele>
        <time>2016-07-31T07:46:43Z</time>
      </trkpt>
      <trkpt lat="42.44726" lon="0.05554">
        <ele>631.7</ele>
        <time>2016-07-31T07:46:44Z</time>
      </trkpt>
      <trkpt lat="42.44723" lon="0.05549">
        <ele>631.2</ele>
        <time>2016-07-31T07:46:45Z</time>
      </trkpt>
      <trkpt lat="42.44721" lon="0.05546">
        <ele>630.7</ele>
        <time>2016-07-31T07:46:46Z</time>
      </trkpt>
      <trkpt lat="42.44719" lon="0.05542">
        <ele>630.3</ele>
        <time>2016-07-31T07:46:47Z</time>
      </trkpt>
      <trkpt lat="42.44717" lon="0.05538">
        <ele>630.2</ele>
        <time>2016-07-31T07:46:48Z</time>
      </trkpt>
      <trkpt lat="42.44715" lon="0.05534">
        <ele>630.1</ele>
        <time>2016-07-31T07:46:49Z</time>
      </trkpt>
      <trkpt lat="42.44714" lon="0.0553">
        <ele>630</ele>
        <time>2016-07-31T07:46:50Z</time>
      </trkpt>
      <trkpt lat="42.44712" lon="0.05526">
        <ele>630</ele>
        <time>2016-07-31T07:46:51Z</time>
      </trkpt>
      <trkpt lat="42.44711" lon="0.05522">
        <ele>629.9</ele>
        <time>2016-07-31T07:46:52Z</time>
      </trkpt>
      <trkpt lat="42.44709" lon="0.05518">
        <ele>629.9</ele>
        <time>2016-07-31T07:46:53Z</time>
      </trkpt>
      <trkpt lat="42.44707" lon="0.05514">
        <ele>630.4</ele>
        <time>2016-07-31T07:46:54Z</time>
      </trkpt>
      <trkpt lat="42.44706" lon="0.0551">
        <ele>631.2</ele>
        <time>2016-07-31T07:46:55Z</time>
      </trkpt>
      <trkpt lat="42.44704" lon="0.05506">
        <ele>632</ele>
        <time>2016-07-31T07:46:56Z</time>
      </trkpt>
      <trkpt lat="42.44703" lon="0.05503">
        <ele>632.7</ele>
        <time>2016-07-31T07:46:57Z</time>
      </trkpt>
      <trkpt lat="42.44701" lon="0.05499">
        <ele>633.5</ele>
        <time>2016-07-31T07:46:58Z</time>
      </trkpt>
      <trkpt lat="42.44699" lon="0.05496">
        <ele>634.2</ele>
        <time>2016-07-31T07:46:59Z</time>
      </trkpt>
      <trkpt lat="42.44698" lon="0.05493">
        <ele>634.9</ele>
        <time>2016-07-31T07:47:00Z</time>
      </trkpt>
      <trkpt lat="42.44696" lon="0.05489">
        <ele>635.5</ele>
        <time>2016-07-31T07:47:01Z</time>
      </trkpt>
      <trkpt lat="42.44694" lon="0.05484">
        <ele>636.2</ele>
        <time>2016-07-31T07:47:02Z</time>
      </trkpt>
      <trkpt lat="42.44693" lon="0.0548">
        <ele>636.7</ele>
        <time>2016-07-31T07:47:03Z</time>
      </trkpt>
      <trkpt lat="42.44691" lon="0.05476">
        <ele>637.2</ele>
        <time>2016-07-31T07:47:04Z</time>
      </trkpt>
      <trkpt lat="42.44689" lon="0.05472">
        <ele>637.8</ele>
        <time>2016-07-31T07:47:05Z</time>
      </trkpt>
      <trkpt lat="42.44687" lon="0.05468">
        <ele>638.4</ele>
        <time>2016-07-31T07:47:06Z</time>
      </trkpt>
      <trkpt lat="42.44686" lon="0.05465">
        <ele>638.9</ele>
        <time>2016-07-31T07:47:07Z</time>
      </trkpt>
      <trkpt lat="42.44684" lon="0.05461">
        <ele>639.3</ele>
        <time>2016-07-31T07:47:08Z</time>
      </trkpt>
      <trkpt lat="42.44682" lon="0.05457">
        <ele>639.7</ele>
        <time>2016-07-31T07:47:09Z</time>
      </trkpt>
      <trkpt lat="42.44681" lon="0.05454">
        <ele>640.2</ele>
        <time>2016-07-31T07:47:10Z</time>
      </trkpt>
      <trkpt lat="42.4468" lon="0.0545">
        <ele>640.6</ele>
        <time>2016-07-31T07:47:11Z</time>
      </trkpt>
      <trkpt lat="42.44679" lon="0.05446">
        <ele>641</ele>
        <time>2016-07-31T07:47:12Z</time>
      </trkpt>
      <trkpt lat="42.44677" lon="0.05442">
        <ele>641.4</ele>
        <time>2016-07-31T07:47:13Z</time>
      </trkpt>
      <trkpt lat="42.44676" lon="0.05438">
        <ele>641.8</ele>
        <time>2016-07-31T07:47:14Z</time>
      </trkpt>
      <trkpt lat="42.44674" lon="0.05434">
        <ele>642.2</ele>
        <time>2016-07-31T07:47:15Z</time>
      </trkpt>
      <trkpt lat="42.44674" lon="0.0543">
        <ele>642.5</ele>
        <time>2016-07-31T07:47:16Z</time>
      </trkpt>
      <trkpt lat="42.44673" lon="0.05425">
        <ele>642.7</ele>
        <time>2016-07-31T07:47:17Z</time>
      </trkpt>
      <trkpt lat="42.44672" lon="0.05421">
        <ele>643</ele>
        <time>2016-07-31T07:47:18Z</time>
      </trkpt>
      <trkpt lat="42.44671" lon="0.05417">
        <ele>643.2</ele>
        <time>2016-07-31T07:47:19Z</time>
      </trkpt>
      <trkpt lat="42.4467" lon="0.05413">
        <ele>643.4</ele>
        <time>2016-07-31T07:47:20Z</time>
      </trkpt>
      <trkpt lat="42.4467" lon="0.05409">
        <ele>643.6</ele>
        <time>2016-07-31T07:47:21Z</time>
      </trkpt>
      <trkpt lat="42.44669" lon="0.05405">
        <ele>643.8</ele>
        <time>2016-07-31T07:47:22Z</time>
      </trkpt>
      <trkpt lat="42.44668" lon="0.05401">
        <ele>643.9</ele>
        <time>2016-07-31T07:47:23Z</time>
      </trkpt>
      <trkpt lat="42.44667" lon="0.05397">
        <ele>644.1</ele>
        <time>2016-07-31T07:47:24Z</time>
      </trkpt>
      <trkpt lat="42.44667" lon="0.05392">
        <ele>644.2</ele>
        <time>2016-07-31T07:47:25Z</time>
      </trkpt>
      <trkpt lat="42.44667" lon="0.05388">
        <ele>644.3</ele>
        <time>2016-07-31T07:47:26Z</time>
      </trkpt>
      <trkpt lat="42.44667" lon="0.05384">
        <ele>644.3</ele>
        <time>2016-07-31T07:47:27Z</time>
      </trkpt>
      <trkpt lat="42.44667" lon="0.0538">
        <ele>644.4</ele>
        <time>2016-07-31T07:47:28Z</time>
      </trkpt>
      <trkpt lat="42.44668" lon="0.05376">
        <ele>644.5</ele>
        <time>2016-07-31T07:47:29Z</time>
      </trkpt>
      <trkpt lat="42.44668" lon="0.05372">
        <ele>644.3</ele>
        <time>2016-07-31T07:47:30Z</time>
      </trkpt>
      <trkpt lat="42.44668" lon="0.05368">
        <ele>644.1</ele>
        <time>2016-07-31T07:47:31Z</time>
      </trkpt>
      <trkpt lat="42.44668" lon="0.05364">
        <ele>643.9</ele>
        <time>2016-07-31T07:47:32Z</time>
      </trkpt>
      <trkpt lat="42.44668" lon="0.0536">
        <ele>643.7</ele>
        <time>2016-07-31T07:47:33Z</time>
      </trkpt>
      <trkpt lat="42.44668" lon="0.05355">
        <ele>643.4</ele>
        <time>2016-07-31T07:47:34Z</time>
      </trkpt>
      <trkpt lat="42.44668" lon="0.05351">
        <ele>643.2</ele>
        <time>2016-07-31T07:47:35Z</time>
      </trkpt>
      <trkpt lat="42.44668" lon="0.05347">
        <ele>643</ele>
        <time>2016-07-31T07:47:36Z</time>
      </trkpt>
      <trkpt lat="42.44668" lon="0.05343">
        <ele>642.8</ele>
        <time>2016-07-31T07:47:37Z</time>
      </trkpt>
      <trkpt lat="42.44668" lon="0.05339">
        <ele>642.6</ele>
        <time>2016-07-31T07:47:38Z</time>
      </trkpt>
      <trkpt lat="42.44668" lon="0.05335">
        <ele>642.4</ele>
        <time>2016-07-31T07:47:39Z</time>
      </trkpt>
      <trkpt lat="42.44668" lon="0.05331">
        <ele>642.2</ele>
        <time>2016-07-31T07:47:40Z</time>
      </trkpt>
      <trkpt lat="42.44667" lon="0.05327">
        <ele>641.9</ele>
        <time>2016-07-31T07:47:41Z</time>
      </trkpt>
      <trkpt lat="42.44667" lon="0.05322">
        <ele>641.7</ele>
        <time>2016-07-31T07:47:42Z</time>
      </trkpt>
      <trkpt lat="42.44668" lon="0.05318">
        <ele>641.5</ele>
        <time>2016-07-31T07:47:43Z</time>
      </trkpt>
      <trkpt lat="42.44668" lon="0.05314">
        <ele>641.3</ele>
        <time>2016-07-31T07:47:44Z</time>
      </trkpt>
      <trkpt lat="42.44668" lon="0.0531">
        <ele>641.1</ele>
        <time>2016-07-31T07:47:45Z</time>
      </trkpt>
      <trkpt lat="42.44668" lon="0.05306">
        <ele>641</ele>
        <time>2016-07-31T07:47:46Z</time>
      </trkpt>
      <trkpt lat="42.44669" lon="0.05302">
        <ele>640.8</ele>
        <time>2016-07-31T07:47:47Z</time>
      </trkpt>
      <trkpt lat="42.44669" lon="0.05298">
        <ele>640.6</ele>
        <time>2016-07-31T07:47:48Z</time>
      </trkpt>
      <trkpt lat="42.44669" lon="0.05294">
        <ele>640.4</ele>
        <time>2016-07-31T07:47:49Z</time>
      </trkpt>
      <trkpt lat="42.44669" lon="0.0529">
        <ele>640.4</ele>
        <time>2016-07-31T07:47:50Z</time>
      </trkpt>
      <trkpt lat="42.4467" lon="0.05285">
        <ele>640.4</ele>
        <time>2016-07-31T07:47:51Z</time>
      </trkpt>
      <trkpt lat="42.4467" lon="0.05282">
        <ele>640.4</ele>
        <time>2016-07-31T07:47:52Z</time>
      </trkpt>
      <trkpt lat="42.4467" lon="0.05278">
        <ele>640.4</ele>
        <time>2016-07-31T07:47:53Z</time>
      </trkpt>
      <trkpt lat="42.4467" lon="0.05274">
        <ele>640.4</ele>
        <time>2016-07-31T07:47:54Z</time>
      </trkpt>
      <trkpt lat="42.4467" lon="0.0527">
        <ele>640.3</ele>
        <time>2016-07-31T07:47:55Z</time>
      </trkpt>
      <trkpt lat="42.44669" lon="0.05266">
        <ele>640.3</ele>
        <time>2016-07-31T07:47:56Z</time>
      </trkpt>
      <trkpt lat="42.44669" lon="0.05262">
        <ele>640.2</ele>
        <time>2016-07-31T07:47:57Z</time>
      </trkpt>
      <trkpt lat="42.44669" lon="0.05259">
        <ele>640.2</ele>
        <time>2016-07-31T07:47:58Z</time>
      </trkpt>
      <trkpt lat="42.44669" lon="0.05255">
        <ele>640.1</ele>
        <time>2016-07-31T07:47:59Z</time>
      </trkpt>
      <trkpt lat="42.44669" lon="0.05251">
        <ele>640.1</ele>
        <time>2016-07-31T07:48:00Z</time>
      </trkpt>
      <trkpt lat="42.44669" lon="0.05247">
        <ele>640.1</ele>
        <time>2016-07-31T07:48:01Z</time>
      </trkpt>
      <trkpt lat="42.44669" lon="0.05244">
        <ele>640.1</ele>
        <time>2016-07-31T07:48:02Z</time>
      </trkpt>
      <trkpt lat="42.44669" lon="0.0524">
        <ele>640.1</ele>
        <time>2016-07-31T07:48:03Z</time>
      </trkpt>
      <trkpt lat="42.44669" lon="0.05236">
        <ele>640</ele>
        <time>2016-07-31T07:48:04Z</time>
      </trkpt>
      <trkpt lat="42.44669" lon="0.05232">
        <ele>640</ele>
        <time>2016-07-31T07:48:05Z</time>
      </trkpt>
      <trkpt lat="42.44669" lon="0.05228">
        <ele>640</ele>
        <time>2016-07-31T07:48:06Z</time>
      </trkpt>
      <trkpt lat="42.44669" lon="0.05224">
        <ele>639.9</ele>
        <time>2016-07-31T07:48:07Z</time>
      </trkpt>
      <trkpt lat="42.44669" lon="0.05219">
        <ele>639.9</ele>
        <time>2016-07-31T07:48:08Z</time>
      </trkpt>
      <trkpt lat="42.44669" lon="0.05215">
        <ele>640</ele>
        <time>2016-07-31T07:48:09Z</time>
      </trkpt>
      <trkpt lat="42.44669" lon="0.05211">
        <ele>640</ele>
        <time>2016-07-31T07:48:10Z</time>
      </trkpt>
      <trkpt lat="42.4467" lon="0.05206">
        <ele>640</ele>
        <time>2016-07-31T07:48:11Z</time>
      </trkpt>
      <trkpt lat="42.4467" lon="0.05202">
        <ele>639.8</ele>
        <time>2016-07-31T07:48:12Z</time>
      </trkpt>
      <trkpt lat="42.44671" lon="0.05198">
        <ele>639.7</ele>
        <time>2016-07-31T07:48:13Z</time>
      </trkpt>
      <trkpt lat="42.44672" lon="0.05194">
        <ele>639.7</ele>
        <time>2016-07-31T07:48:14Z</time>
      </trkpt>
      <trkpt lat="42.44673" lon="0.0519">
        <ele>639.7</ele>
        <time>2016-07-31T07:48:15Z</time>
      </trkpt>
      <trkpt lat="42.44674" lon="0.05186">
        <ele>639.7</ele>
        <time>2016-07-31T07:48:16Z</time>
      </trkpt>
      <trkpt lat="42.44675" lon="0.05182">
        <ele>639.7</ele>
        <time>2016-07-31T07:48:17Z</time>
      </trkpt>
      <trkpt lat="42.44677" lon="0.05178">
        <ele>639.7</ele>
        <time>2016-07-31T07:48:18Z</time>
      </trkpt>
      <trkpt lat="42.44678" lon="0.05174">
        <ele>639.7</ele>
        <time>2016-07-31T07:48:19Z</time>
      </trkpt>
      <trkpt lat="42.44679" lon="0.05171">
        <ele>639.7</ele>
        <time>2016-07-31T07:48:20Z</time>
      </trkpt>
      <trkpt lat="42.4468" lon="0.05167">
        <ele>639.7</ele>
        <time>2016-07-31T07:48:21Z</time>
      </trkpt>
      <trkpt lat="42.44681" lon="0.05163">
        <ele>639.6</ele>
        <time>2016-07-31T07:48:22Z</time>
      </trkpt>
      <trkpt lat="42.44681" lon="0.05159">
        <ele>639.6</ele>
        <time>2016-07-31T07:48:23Z</time>
      </trkpt>
      <trkpt lat="42.44682" lon="0.05154">
        <ele>639.5</ele>
        <time>2016-07-31T07:48:24Z</time>
      </trkpt>
      <trkpt lat="42.44683" lon="0.0515">
        <ele>639.4</ele>
        <time>2016-07-31T07:48:25Z</time>
      </trkpt>
      <trkpt lat="42.44684" lon="0.05146">
        <ele>639.3</ele>
        <time>2016-07-31T07:48:26Z</time>
      </trkpt>
      <trkpt lat="42.44684" lon="0.05142">
        <ele>639.2</ele>
        <time>2016-07-31T07:48:27Z</time>
      </trkpt>
      <trkpt lat="42.44685" lon="0.05138">
        <ele>639.1</ele>
        <time>2016-07-31T07:48:28Z</time>
      </trkpt>
      <trkpt lat="42.44685" lon="0.05134">
        <ele>639</ele>
        <time>2016-07-31T07:48:29Z</time>
      </trkpt>
      <trkpt lat="42.44685" lon="0.0513">
        <ele>638.8</ele>
        <time>2016-07-31T07:48:30Z</time>
      </trkpt>
      <trkpt lat="42.44685" lon="0.05126">
        <ele>638.6</ele>
        <time>2016-07-31T07:48:31Z</time>
      </trkpt>
      <trkpt lat="42.44685" lon="0.05122">
        <ele>638.6</ele>
        <time>2016-07-31T07:48:32Z</time>
      </trkpt>
      <trkpt lat="42.44685" lon="0.05119">
        <ele>638.9</ele>
        <time>2016-07-31T07:48:33Z</time>
      </trkpt>
      <trkpt lat="42.44685" lon="0.05115">
        <ele>639.1</ele>
        <time>2016-07-31T07:48:34Z</time>
      </trkpt>
      <trkpt lat="42.44686" lon="0.05111">
        <ele>639.4</ele>
        <time>2016-07-31T07:48:35Z</time>
      </trkpt>
      <trkpt lat="42.44686" lon="0.05107">
        <ele>639.7</ele>
        <time>2016-07-31T07:48:36Z</time>
      </trkpt>
      <trkpt lat="42.44687" lon="0.05103">
        <ele>639.9</ele>
        <time>2016-07-31T07:48:37Z</time>
      </trkpt>
      <trkpt lat="42.44688" lon="0.051">
        <ele>640.2</ele>
        <time>2016-07-31T07:48:38Z</time>
      </trkpt>
      <trkpt lat="42.44689" lon="0.05093">
        <ele>640.8</ele>
        <time>2016-07-31T07:48:40Z</time>
      </trkpt>
      <trkpt lat="42.44692" lon="0.05087">
        <ele>641.5</ele>
        <time>2016-07-31T07:48:42Z</time>
      </trkpt>
      <trkpt lat="42.44695" lon="0.05081">
        <ele>642.4</ele>
        <time>2016-07-31T07:48:44Z</time>
      </trkpt>
      <trkpt lat="42.44697" lon="0.05078">
        <ele>642.8</ele>
        <time>2016-07-31T07:48:45Z</time>
      </trkpt>
      <trkpt lat="42.44699" lon="0.05075">
        <ele>643.3</ele>
        <time>2016-07-31T07:48:46Z</time>
      </trkpt>
      <trkpt lat="42.44701" lon="0.05073">
        <ele>643.7</ele>
        <time>2016-07-31T07:48:47Z</time>
      </trkpt>
      <trkpt lat="42.44703" lon="0.0507">
        <ele>644.1</ele>
        <time>2016-07-31T07:48:48Z</time>
      </trkpt>
      <trkpt lat="42.44705" lon="0.05067">
        <ele>644.6</ele>
        <time>2016-07-31T07:48:49Z</time>
      </trkpt>
      <trkpt lat="42.44708" lon="0.05064">
        <ele>645.1</ele>
        <time>2016-07-31T07:48:50Z</time>
      </trkpt>
      <trkpt lat="42.4471" lon="0.05061">
        <ele>646</ele>
        <time>2016-07-31T07:48:51Z</time>
      </trkpt>
      <trkpt lat="42.44712" lon="0.05058">
        <ele>647</ele>
        <time>2016-07-31T07:48:52Z</time>
      </trkpt>
      <trkpt lat="42.44714" lon="0.05055">
        <ele>648.1</ele>
        <time>2016-07-31T07:48:53Z</time>
      </trkpt>
      <trkpt lat="42.44716" lon="0.05052">
        <ele>649.1</ele>
        <time>2016-07-31T07:48:54Z</time>
      </trkpt>
      <trkpt lat="42.44719" lon="0.05049">
        <ele>650</ele>
        <time>2016-07-31T07:48:55Z</time>
      </trkpt>
      <trkpt lat="42.44721" lon="0.05046">
        <ele>650.9</ele>
        <time>2016-07-31T07:48:56Z</time>
      </trkpt>
      <trkpt lat="42.44723" lon="0.05042">
        <ele>651.8</ele>
        <time>2016-07-31T07:48:57Z</time>
      </trkpt>
      <trkpt lat="42.44724" lon="0.05039">
        <ele>653.2</ele>
        <time>2016-07-31T07:48:58Z</time>
      </trkpt>
      <trkpt lat="42.44726" lon="0.05035">
        <ele>654.7</ele>
        <time>2016-07-31T07:48:59Z</time>
      </trkpt>
      <trkpt lat="42.44727" lon="0.05032">
        <ele>656.1</ele>
        <time>2016-07-31T07:49:00Z</time>
      </trkpt>
      <trkpt lat="42.44728" lon="0.05028">
        <ele>657.4</ele>
        <time>2016-07-31T07:49:01Z</time>
      </trkpt>
      <trkpt lat="42.44729" lon="0.05024">
        <ele>658.6</ele>
        <time>2016-07-31T07:49:02Z</time>
      </trkpt>
      <trkpt lat="42.4473" lon="0.0502">
        <ele>659.8</ele>
        <time>2016-07-31T07:49:03Z</time>
      </trkpt>
      <trkpt lat="42.4473" lon="0.05016">
        <ele>660.8</ele>
        <time>2016-07-31T07:49:04Z</time>
      </trkpt>
      <trkpt lat="42.4473" lon="0.05012">
        <ele>661.8</ele>
        <time>2016-07-31T07:49:05Z</time>
      </trkpt>
      <trkpt lat="42.4473" lon="0.05005">
        <ele>663.5</ele>
        <time>2016-07-31T07:49:07Z</time>
      </trkpt>
      <trkpt lat="42.4473" lon="0.05001">
        <ele>664.4</ele>
        <time>2016-07-31T07:49:08Z</time>
      </trkpt>
      <trkpt lat="42.4473" lon="0.04997">
        <ele>665.3</ele>
        <time>2016-07-31T07:49:09Z</time>
      </trkpt>
      <trkpt lat="42.44729" lon="0.04993">
        <ele>666.1</ele>
        <time>2016-07-31T07:49:10Z</time>
      </trkpt>
      <trkpt lat="42.44728" lon="0.04988">
        <ele>666.9</ele>
        <time>2016-07-31T07:49:11Z</time>
      </trkpt>
      <trkpt lat="42.44727" lon="0.04983">
        <ele>667.7</ele>
        <time>2016-07-31T07:49:12Z</time>
      </trkpt>
      <trkpt lat="42.44725" lon="0.04979">
        <ele>668.3</ele>
        <time>2016-07-31T07:49:13Z</time>
      </trkpt>
      <trkpt lat="42.44723" lon="0.04975">
        <ele>668.9</ele>
        <time>2016-07-31T07:49:14Z</time>
      </trkpt>
      <trkpt lat="42.44721" lon="0.0497">
        <ele>669.4</ele>
        <time>2016-07-31T07:49:15Z</time>
      </trkpt>
      <trkpt lat="42.44718" lon="0.04966">
        <ele>669.8</ele>
        <time>2016-07-31T07:49:16Z</time>
      </trkpt>
      <trkpt lat="42.44714" lon="0.04962">
        <ele>670.1</ele>
        <time>2016-07-31T07:49:17Z</time>
      </trkpt>
      <trkpt lat="42.44711" lon="0.04959">
        <ele>670.3</ele>
        <time>2016-07-31T07:49:18Z</time>
      </trkpt>
      <trkpt lat="42.44707" lon="0.04956">
        <ele>669.9</ele>
        <time>2016-07-31T07:49:19Z</time>
      </trkpt>
      <trkpt lat="42.44703" lon="0.04954">
        <ele>669.2</ele>
        <time>2016-07-31T07:49:20Z</time>
      </trkpt>
      <trkpt lat="42.44699" lon="0.04952">
        <ele>668.4</ele>
        <time>2016-07-31T07:49:21Z</time>
      </trkpt>
      <trkpt lat="42.44694" lon="0.0495">
        <ele>667.4</ele>
        <time>2016-07-31T07:49:22Z</time>
      </trkpt>
      <trkpt lat="42.4469" lon="0.04949">
        <ele>666.4</ele>
        <time>2016-07-31T07:49:23Z</time>
      </trkpt>
      <trkpt lat="42.44684" lon="0.04948">
        <ele>665</ele>
        <time>2016-07-31T07:49:24Z</time>
      </trkpt>
      <trkpt lat="42.4468" lon="0.04946">
        <ele>664.1</ele>
        <time>2016-07-31T07:49:25Z</time>
      </trkpt>
      <trkpt lat="42.44676" lon="0.04943">
        <ele>663.2</ele>
        <time>2016-07-31T07:49:26Z</time>
      </trkpt>
      <trkpt lat="42.44671" lon="0.04941">
        <ele>662.2</ele>
        <time>2016-07-31T07:49:27Z</time>
      </trkpt>
      <trkpt lat="42.44667" lon="0.0494">
        <ele>661.2</ele>
        <time>2016-07-31T07:49:28Z</time>
      </trkpt>
      <trkpt lat="42.44663" lon="0.04939">
        <ele>660.1</ele>
        <time>2016-07-31T07:49:29Z</time>
      </trkpt>
      <trkpt lat="42.44659" lon="0.04938">
        <ele>659.2</ele>
        <time>2016-07-31T07:49:30Z</time>
      </trkpt>
      <trkpt lat="42.44655" lon="0.04935">
        <ele>658.1</ele>
        <time>2016-07-31T07:49:31Z</time>
      </trkpt>
      <trkpt lat="42.4465" lon="0.04934">
        <ele>657</ele>
        <time>2016-07-31T07:49:32Z</time>
      </trkpt>
      <trkpt lat="42.44645" lon="0.04932">
        <ele>655.8</ele>
        <time>2016-07-31T07:49:33Z</time>
      </trkpt>
      <trkpt lat="42.44641" lon="0.0493">
        <ele>654.7</ele>
        <time>2016-07-31T07:49:34Z</time>
      </trkpt>
      <trkpt lat="42.44636" lon="0.04928">
        <ele>653.5</ele>
        <time>2016-07-31T07:49:35Z</time>
      </trkpt>
      <trkpt lat="42.44632" lon="0.04925">
        <ele>652.4</ele>
        <time>2016-07-31T07:49:36Z</time>
      </trkpt>
      <trkpt lat="42.44628" lon="0.04922">
        <ele>651.4</ele>
        <time>2016-07-31T07:49:37Z</time>
      </trkpt>
      <trkpt lat="42.44623" lon="0.0492">
        <ele>650.6</ele>
        <time>2016-07-31T07:49:38Z</time>
      </trkpt>
      <trkpt lat="42.44619" lon="0.04916">
        <ele>650.5</ele>
        <time>2016-07-31T07:49:39Z</time>
      </trkpt>
      <trkpt lat="42.44616" lon="0.04911">
        <ele>650.5</ele>
        <time>2016-07-31T07:49:40Z</time>
      </trkpt>
      <trkpt lat="42.44612" lon="0.04906">
        <ele>650.4</ele>
        <time>2016-07-31T07:49:41Z</time>
      </trkpt>
      <trkpt lat="42.44606" lon="0.04887">
        <ele>650.5</ele>
        <time>2016-07-31T07:49:44Z</time>
      </trkpt>
      <trkpt lat="42.44604" lon="0.04881">
        <ele>650.5</ele>
        <time>2016-07-31T07:49:45Z</time>
      </trkpt>
      <trkpt lat="42.44604" lon="0.04875">
        <ele>650.7</ele>
        <time>2016-07-31T07:49:46Z</time>
      </trkpt>
      <trkpt lat="42.44603" lon="0.04869">
        <ele>650.6</ele>
        <time>2016-07-31T07:49:47Z</time>
      </trkpt>
      <trkpt lat="42.44603" lon="0.04863">
        <ele>650.5</ele>
        <time>2016-07-31T07:49:48Z</time>
      </trkpt>
      <trkpt lat="42.44603" lon="0.04858">
        <ele>650.6</ele>
        <time>2016-07-31T07:49:49Z</time>
      </trkpt>
      <trkpt lat="42.44604" lon="0.04851">
        <ele>650.6</ele>
        <time>2016-07-31T07:49:50Z</time>
      </trkpt>
      <trkpt lat="42.44604" lon="0.04844">
        <ele>650.7</ele>
        <time>2016-07-31T07:49:51Z</time>
      </trkpt>
      <trkpt lat="42.44605" lon="0.04838">
        <ele>650.7</ele>
        <time>2016-07-31T07:49:52Z</time>
      </trkpt>
      <trkpt lat="42.44606" lon="0.04832">
        <ele>650.9</ele>
        <time>2016-07-31T07:49:53Z</time>
      </trkpt>
      <trkpt lat="42.44607" lon="0.04825">
        <ele>651</ele>
        <time>2016-07-31T07:49:54Z</time>
      </trkpt>
      <trkpt lat="42.44609" lon="0.04818">
        <ele>651.1</ele>
        <time>2016-07-31T07:49:55Z</time>
      </trkpt>
      <trkpt lat="42.44609" lon="0.04812">
        <ele>651.1</ele>
        <time>2016-07-31T07:49:56Z</time>
      </trkpt>
      <trkpt lat="42.4461" lon="0.04805">
        <ele>651.3</ele>
        <time>2016-07-31T07:49:57Z</time>
      </trkpt>
      <trkpt lat="42.44611" lon="0.04799">
        <ele>651.4</ele>
        <time>2016-07-31T07:49:58Z</time>
      </trkpt>
      <trkpt lat="42.44612" lon="0.04793">
        <ele>651.4</ele>
        <time>2016-07-31T07:49:59Z</time>
      </trkpt>
      <trkpt lat="42.44613" lon="0.04786">
        <ele>652.2</ele>
        <time>2016-07-31T07:50:00Z</time>
      </trkpt>
      <trkpt lat="42.44614" lon="0.0478">
        <ele>653.1</ele>
        <time>2016-07-31T07:50:01Z</time>
      </trkpt>
      <trkpt lat="42.44614" lon="0.04774">
        <ele>654</ele>
        <time>2016-07-31T07:50:02Z</time>
      </trkpt>
      <trkpt lat="42.44614" lon="0.04766">
        <ele>655</ele>
        <time>2016-07-31T07:50:03Z</time>
      </trkpt>
      <trkpt lat="42.44614" lon="0.0476">
        <ele>655.9</ele>
        <time>2016-07-31T07:50:04Z</time>
      </trkpt>
      <trkpt lat="42.44615" lon="0.04753">
        <ele>656.7</ele>
        <time>2016-07-31T07:50:05Z</time>
      </trkpt>
      <trkpt lat="42.44616" lon="0.04746">
        <ele>657.7</ele>
        <time>2016-07-31T07:50:06Z</time>
      </trkpt>
      <trkpt lat="42.44615" lon="0.0474">
        <ele>658.4</ele>
        <time>2016-07-31T07:50:07Z</time>
      </trkpt>
      <trkpt lat="42.44615" lon="0.04735">
        <ele>659.1</ele>
        <time>2016-07-31T07:50:08Z</time>
      </trkpt>
      <trkpt lat="42.44614" lon="0.04728">
        <ele>660</ele>
        <time>2016-07-31T07:50:09Z</time>
      </trkpt>
      <trkpt lat="42.44612" lon="0.04722">
        <ele>660.8</ele>
        <time>2016-07-31T07:50:10Z</time>
      </trkpt>
      <trkpt lat="42.44611" lon="0.04716">
        <ele>661.7</ele>
        <time>2016-07-31T07:50:11Z</time>
      </trkpt>
      <trkpt lat="42.44608" lon="0.0471">
        <ele>662.6</ele>
        <time>2016-07-31T07:50:12Z</time>
      </trkpt>
      <trkpt lat="42.44605" lon="0.04705">
        <ele>663.5</ele>
        <time>2016-07-31T07:50:13Z</time>
      </trkpt>
      <trkpt lat="42.44601" lon="0.04701">
        <ele>664.2</ele>
        <time>2016-07-31T07:50:14Z</time>
      </trkpt>
      <trkpt lat="42.44597" lon="0.04699">
        <ele>664.8</ele>
        <time>2016-07-31T07:50:15Z</time>
      </trkpt>
      <trkpt lat="42.44593" lon="0.04696">
        <ele>665.5</ele>
        <time>2016-07-31T07:50:16Z</time>
      </trkpt>
      <trkpt lat="42.44588" lon="0.04694">
        <ele>666.3</ele>
        <time>2016-07-31T07:50:17Z</time>
      </trkpt>
      <trkpt lat="42.44584" lon="0.04692">
        <ele>666.9</ele>
        <time>2016-07-31T07:50:18Z</time>
      </trkpt>
      <trkpt lat="42.4458" lon="0.0469">
        <ele>667.6</ele>
        <time>2016-07-31T07:50:19Z</time>
      </trkpt>
      <trkpt lat="42.44574" lon="0.04689">
        <ele>668.4</ele>
        <time>2016-07-31T07:50:20Z</time>
      </trkpt>
      <trkpt lat="42.4457" lon="0.04689">
        <ele>668.8</ele>
        <time>2016-07-31T07:50:21Z</time>
      </trkpt>
      <trkpt lat="42.44565" lon="0.04688">
        <ele>669.5</ele>
        <time>2016-07-31T07:50:22Z</time>
      </trkpt>
      <trkpt lat="42.4456" lon="0.04686">
        <ele>670.2</ele>
        <time>2016-07-31T07:50:23Z</time>
      </trkpt>
      <trkpt lat="42.44555" lon="0.04684">
        <ele>671.2</ele>
        <time>2016-07-31T07:50:24Z</time>
      </trkpt>
      <trkpt lat="42.44551" lon="0.04684">
        <ele>671.8</ele>
        <time>2016-07-31T07:50:25Z</time>
      </trkpt>
      <trkpt lat="42.44546" lon="0.04682">
        <ele>672.8</ele>
        <time>2016-07-31T07:50:26Z</time>
      </trkpt>
      <trkpt lat="42.44542" lon="0.04681">
        <ele>673.6</ele>
        <time>2016-07-31T07:50:27Z</time>
      </trkpt>
      <trkpt lat="42.44537" lon="0.04681">
        <ele>674</ele>
        <time>2016-07-31T07:50:28Z</time>
      </trkpt>
      <trkpt lat="42.44533" lon="0.0468">
        <ele>674.6</ele>
        <time>2016-07-31T07:50:29Z</time>
      </trkpt>
      <trkpt lat="42.44528" lon="0.04678">
        <ele>675.3</ele>
        <time>2016-07-31T07:50:30Z</time>
      </trkpt>
      <trkpt lat="42.44524" lon="0.04676">
        <ele>676.3</ele>
        <time>2016-07-31T07:50:31Z</time>
      </trkpt>
      <trkpt lat="42.4452" lon="0.04675">
        <ele>676.8</ele>
        <time>2016-07-31T07:50:32Z</time>
      </trkpt>
      <trkpt lat="42.44515" lon="0.04675">
        <ele>677.3</ele>
        <time>2016-07-31T07:50:33Z</time>
      </trkpt>
      <trkpt lat="42.4451" lon="0.04673">
        <ele>678.2</ele>
        <time>2016-07-31T07:50:34Z</time>
      </trkpt>
      <trkpt lat="42.44505" lon="0.04672">
        <ele>679</ele>
        <time>2016-07-31T07:50:35Z</time>
      </trkpt>
      <trkpt lat="42.445" lon="0.0467">
        <ele>680</ele>
        <time>2016-07-31T07:50:36Z</time>
      </trkpt>
      <trkpt lat="42.44496" lon="0.04669">
        <ele>680.6</ele>
        <time>2016-07-31T07:50:37Z</time>
      </trkpt>
      <trkpt lat="42.44492" lon="0.04668">
        <ele>681.2</ele>
        <time>2016-07-31T07:50:38Z</time>
      </trkpt>
      <trkpt lat="42.44488" lon="0.04667">
        <ele>682</ele>
        <time>2016-07-31T07:50:39Z</time>
      </trkpt>
      <trkpt lat="42.44484" lon="0.04666">
        <ele>682.5</ele>
        <time>2016-07-31T07:50:40Z</time>
      </trkpt>
      <trkpt lat="42.4448" lon="0.04666">
        <ele>682.9</ele>
        <time>2016-07-31T07:50:41Z</time>
      </trkpt>
      <trkpt lat="42.44476" lon="0.04666">
        <ele>683.3</ele>
        <time>2016-07-31T07:50:42Z</time>
      </trkpt>
      <trkpt lat="42.44472" lon="0.04665">
        <ele>683.8</ele>
        <time>2016-07-31T07:50:43Z</time>
      </trkpt>
      <trkpt lat="42.44468" lon="0.04664">
        <ele>684.5</ele>
        <time>2016-07-31T07:50:44Z</time>
      </trkpt>
      <trkpt lat="42.44464" lon="0.04663">
        <ele>685.2</ele>
        <time>2016-07-31T07:50:45Z</time>
      </trkpt>
      <trkpt lat="42.4446" lon="0.04662">
        <ele>685.9</ele>
        <time>2016-07-31T07:50:46Z</time>
      </trkpt>
      <trkpt lat="42.44457" lon="0.04662">
        <ele>686.3</ele>
        <time>2016-07-31T07:50:47Z</time>
      </trkpt>
      <trkpt lat="42.44453" lon="0.04662">
        <ele>686.2</ele>
        <time>2016-07-31T07:50:48Z</time>
      </trkpt>
      <trkpt lat="42.4445" lon="0.04662">
        <ele>686.1</ele>
        <time>2016-07-31T07:50:49Z</time>
      </trkpt>
      <trkpt lat="42.44446" lon="0.04662">
        <ele>686.1</ele>
        <time>2016-07-31T07:50:50Z</time>
      </trkpt>
      <trkpt lat="42.44443" lon="0.04662">
        <ele>686</ele>
        <time>2016-07-31T07:50:51Z</time>
      </trkpt>
      <trkpt lat="42.44439" lon="0.04663">
        <ele>685.9</ele>
        <time>2016-07-31T07:50:52Z</time>
      </trkpt>
      <trkpt lat="42.44436" lon="0.04663">
        <ele>685.8</ele>
        <time>2016-07-31T07:50:53Z</time>
      </trkpt>
      <trkpt lat="42.44433" lon="0.04664">
        <ele>685.5</ele>
        <time>2016-07-31T07:50:54Z</time>
      </trkpt>
      <trkpt lat="42.4443" lon="0.04665">
        <ele>685.2</ele>
        <time>2016-07-31T07:50:55Z</time>
      </trkpt>
      <trkpt lat="42.44427" lon="0.04666">
        <ele>684.9</ele>
        <time>2016-07-31T07:50:56Z</time>
      </trkpt>
      <trkpt lat="42.44424" lon="0.04666">
        <ele>684.7</ele>
        <time>2016-07-31T07:50:57Z</time>
      </trkpt>
      <trkpt lat="42.4442" lon="0.04667">
        <ele>684.5</ele>
        <time>2016-07-31T07:50:58Z</time>
      </trkpt>
      <trkpt lat="42.44417" lon="0.04667">
        <ele>684.4</ele>
        <time>2016-07-31T07:50:59Z</time>
      </trkpt>
      <trkpt lat="42.44414" lon="0.04667">
        <ele>684.3</ele>
        <time>2016-07-31T07:51:00Z</time>
      </trkpt>
      <trkpt lat="42.4441" lon="0.04668">
        <ele>684.1</ele>
        <time>2016-07-31T07:51:01Z</time>
      </trkpt>
      <trkpt lat="42.44407" lon="0.04668">
        <ele>683.9</ele>
        <time>2016-07-31T07:51:02Z</time>
      </trkpt>
      <trkpt lat="42.44404" lon="0.04668">
        <ele>683.9</ele>
        <time>2016-07-31T07:51:03Z</time>
      </trkpt>
      <trkpt lat="42.44401" lon="0.04668">
        <ele>684</ele>
        <time>2016-07-31T07:51:04Z</time>
      </trkpt>
      <trkpt lat="42.44397" lon="0.04668">
        <ele>684.2</ele>
        <time>2016-07-31T07:51:05Z</time>
      </trkpt>
      <trkpt lat="42.44394" lon="0.04667">
        <ele>684.5</ele>
        <time>2016-07-31T07:51:06Z</time>
      </trkpt>
      <trkpt lat="42.44391" lon="0.04666">
        <ele>684.7</ele>
        <time>2016-07-31T07:51:07Z</time>
      </trkpt>
      <trkpt lat="42.44388" lon="0.04665">
        <ele>685.1</ele>
        <time>2016-07-31T07:51:08Z</time>
      </trkpt>
      <trkpt lat="42.44385" lon="0.04664">
        <ele>685.6</ele>
        <time>2016-07-31T07:51:09Z</time>
      </trkpt>
      <trkpt lat="42.44383" lon="0.04662">
        <ele>686.1</ele>
        <time>2016-07-31T07:51:10Z</time>
      </trkpt>
      <trkpt lat="42.4438" lon="0.04661">
        <ele>686.6</ele>
        <time>2016-07-31T07:51:11Z</time>
      </trkpt>
      <trkpt lat="42.44378" lon="0.04659">
        <ele>687.2</ele>
        <time>2016-07-31T07:51:12Z</time>
      </trkpt>
      <trkpt lat="42.44375" lon="0.04658">
        <ele>687.7</ele>
        <time>2016-07-31T07:51:13Z</time>
      </trkpt>
      <trkpt lat="42.44372" lon="0.04657">
        <ele>688.1</ele>
        <time>2016-07-31T07:51:14Z</time>
      </trkpt>
      <trkpt lat="42.44369" lon="0.04656">
        <ele>688.3</ele>
        <time>2016-07-31T07:51:15Z</time>
      </trkpt>
      <trkpt lat="42.44366" lon="0.04655">
        <ele>688.7</ele>
        <time>2016-07-31T07:51:16Z</time>
      </trkpt>
      <trkpt lat="42.44363" lon="0.04653">
        <ele>689.2</ele>
        <time>2016-07-31T07:51:17Z</time>
      </trkpt>
      <trkpt lat="42.4436" lon="0.04652">
        <ele>689.8</ele>
        <time>2016-07-31T07:51:18Z</time>
      </trkpt>
      <trkpt lat="42.44357" lon="0.0465">
        <ele>690.3</ele>
        <time>2016-07-31T07:51:19Z</time>
      </trkpt>
      <trkpt lat="42.44354" lon="0.04649">
        <ele>690.9</ele>
        <time>2016-07-31T07:51:20Z</time>
      </trkpt>
      <trkpt lat="42.44351" lon="0.04647">
        <ele>691.3</ele>
        <time>2016-07-31T07:51:21Z</time>
      </trkpt>
      <trkpt lat="42.44348" lon="0.04646">
        <ele>691.6</ele>
        <time>2016-07-31T07:51:22Z</time>
      </trkpt>
      <trkpt lat="42.44346" lon="0.04646">
        <ele>691.8</ele>
        <time>2016-07-31T07:51:23Z</time>
      </trkpt>
      <trkpt lat="42.44343" lon="0.04645">
        <ele>692.1</ele>
        <time>2016-07-31T07:51:24Z</time>
      </trkpt>
      <trkpt lat="42.4434" lon="0.04644">
        <ele>692.3</ele>
        <time>2016-07-31T07:51:25Z</time>
      </trkpt>
      <trkpt lat="42.44337" lon="0.04643">
        <ele>692.5</ele>
        <time>2016-07-31T07:51:26Z</time>
      </trkpt>
      <trkpt lat="42.44335" lon="0.04642">
        <ele>692.9</ele>
        <time>2016-07-31T07:51:27Z</time>
      </trkpt>
      <trkpt lat="42.44332" lon="0.04641">
        <ele>693.3</ele>
        <time>2016-07-31T07:51:28Z</time>
      </trkpt>
      <trkpt lat="42.44329" lon="0.0464">
        <ele>693.6</ele>
        <time>2016-07-31T07:51:29Z</time>
      </trkpt>
      <trkpt lat="42.44327" lon="0.0464">
        <ele>693.8</ele>
        <time>2016-07-31T07:51:30Z</time>
      </trkpt>
      <trkpt lat="42.44324" lon="0.04639">
        <ele>693.8</ele>
        <time>2016-07-31T07:51:31Z</time>
      </trkpt>
      <trkpt lat="42.44321" lon="0.04639">
        <ele>693.8</ele>
        <time>2016-07-31T07:51:32Z</time>
      </trkpt>
      <trkpt lat="42.44318" lon="0.0464">
        <ele>693.7</ele>
        <time>2016-07-31T07:51:33Z</time>
      </trkpt>
      <trkpt lat="42.44315" lon="0.04639">
        <ele>693.8</ele>
        <time>2016-07-31T07:51:34Z</time>
      </trkpt>
      <trkpt lat="42.44312" lon="0.04639">
        <ele>694</ele>
        <time>2016-07-31T07:51:35Z</time>
      </trkpt>
      <trkpt lat="42.44309" lon="0.04638">
        <ele>694.2</ele>
        <time>2016-07-31T07:51:36Z</time>
      </trkpt>
      <trkpt lat="42.44306" lon="0.04637">
        <ele>694.5</ele>
        <time>2016-07-31T07:51:37Z</time>
      </trkpt>
      <trkpt lat="42.44303" lon="0.04636">
        <ele>694.9</ele>
        <time>2016-07-31T07:51:38Z</time>
      </trkpt>
      <trkpt lat="42.443" lon="0.04634">
        <ele>695.3</ele>
        <time>2016-07-31T07:51:39Z</time>
      </trkpt>
      <trkpt lat="42.44298" lon="0.04633">
        <ele>695.8</ele>
        <time>2016-07-31T07:51:40Z</time>
      </trkpt>
      <trkpt lat="42.44295" lon="0.04631">
        <ele>696.2</ele>
        <time>2016-07-31T07:51:41Z</time>
      </trkpt>
      <trkpt lat="42.44292" lon="0.0463">
        <ele>696.5</ele>
        <time>2016-07-31T07:51:42Z</time>
      </trkpt>
      <trkpt lat="42.44289" lon="0.04629">
        <ele>697.1</ele>
        <time>2016-07-31T07:51:43Z</time>
      </trkpt>
      <trkpt lat="42.44286" lon="0.04628">
        <ele>697.7</ele>
        <time>2016-07-31T07:51:44Z</time>
      </trkpt>
      <trkpt lat="42.44284" lon="0.04627">
        <ele>698.3</ele>
        <time>2016-07-31T07:51:45Z</time>
      </trkpt>
      <trkpt lat="42.44281" lon="0.04627">
        <ele>698.9</ele>
        <time>2016-07-31T07:51:46Z</time>
      </trkpt>
      <trkpt lat="42.44276" lon="0.04625">
        <ele>699.8</ele>
        <time>2016-07-31T07:51:48Z</time>
      </trkpt>
      <trkpt lat="42.44271" lon="0.04624">
        <ele>700.8</ele>
        <time>2016-07-31T07:51:50Z</time>
      </trkpt>
      <trkpt lat="42.44266" lon="0.04623">
        <ele>702</ele>
        <time>2016-07-31T07:51:52Z</time>
      </trkpt>
      <trkpt lat="42.44261" lon="0.0462">
        <ele>703.3</ele>
        <time>2016-07-31T07:51:54Z</time>
      </trkpt>
      <trkpt lat="42.44256" lon="0.04618">
        <ele>704.5</ele>
        <time>2016-07-31T07:51:56Z</time>
      </trkpt>
      <trkpt lat="42.44251" lon="0.04617">
        <ele>705.5</ele>
        <time>2016-07-31T07:51:58Z</time>
      </trkpt>
      <trkpt lat="42.44246" lon="0.04616">
        <ele>706.4</ele>
        <time>2016-07-31T07:52:00Z</time>
      </trkpt>
      <trkpt lat="42.44241" lon="0.04614">
        <ele>707.5</ele>
        <time>2016-07-31T07:52:02Z</time>
      </trkpt>
      <trkpt lat="42.44236" lon="0.04612">
        <ele>708.8</ele>
        <time>2016-07-31T07:52:04Z</time>
      </trkpt>
      <trkpt lat="42.44232" lon="0.04609">
        <ele>710.1</ele>
        <time>2016-07-31T07:52:06Z</time>
      </trkpt>
      <trkpt lat="42.44227" lon="0.04606">
        <ele>711.4</ele>
        <time>2016-07-31T07:52:08Z</time>
      </trkpt>
      <trkpt lat="42.44222" lon="0.04605">
        <ele>712.4</ele>
        <time>2016-07-31T07:52:10Z</time>
      </trkpt>
      <trkpt lat="42.44216" lon="0.04603">
        <ele>713.4</ele>
        <time>2016-07-31T07:52:12Z</time>
      </trkpt>
      <trkpt lat="42.44211" lon="0.04601">
        <ele>714.3</ele>
        <time>2016-07-31T07:52:14Z</time>
      </trkpt>
      <trkpt lat="42.44206" lon="0.046">
        <ele>714.8</ele>
        <time>2016-07-31T07:52:16Z</time>
      </trkpt>
      <trkpt lat="42.44201" lon="0.046">
        <ele>714.8</ele>
        <time>2016-07-31T07:52:18Z</time>
      </trkpt>
      <trkpt lat="42.44195" lon="0.04601">
        <ele>714.4</ele>
        <time>2016-07-31T07:52:20Z</time>
      </trkpt>
      <trkpt lat="42.44193" lon="0.04602">
        <ele>714.1</ele>
        <time>2016-07-31T07:52:21Z</time>
      </trkpt>
      <trkpt lat="42.4419" lon="0.04604">
        <ele>713.7</ele>
        <time>2016-07-31T07:52:22Z</time>
      </trkpt>
      <trkpt lat="42.44188" lon="0.04605">
        <ele>713.3</ele>
        <time>2016-07-31T07:52:23Z</time>
      </trkpt>
      <trkpt lat="42.44185" lon="0.04607">
        <ele>712.8</ele>
        <time>2016-07-31T07:52:24Z</time>
      </trkpt>
      <trkpt lat="42.44183" lon="0.04609">
        <ele>712.3</ele>
        <time>2016-07-31T07:52:25Z</time>
      </trkpt>
      <trkpt lat="42.4418" lon="0.0461">
        <ele>711.8</ele>
        <time>2016-07-31T07:52:26Z</time>
      </trkpt>
      <trkpt lat="42.44178" lon="0.04612">
        <ele>711.4</ele>
        <time>2016-07-31T07:52:27Z</time>
      </trkpt>
      <trkpt lat="42.44173" lon="0.04615">
        <ele>710.7</ele>
        <time>2016-07-31T07:52:29Z</time>
      </trkpt>
      <trkpt lat="42.44168" lon="0.04618">
        <ele>709.8</ele>
        <time>2016-07-31T07:52:31Z</time>
      </trkpt>
      <trkpt lat="42.44164" lon="0.04622">
        <ele>708.8</ele>
        <time>2016-07-31T07:52:33Z</time>
      </trkpt>
      <trkpt lat="42.4416" lon="0.04625">
        <ele>708</ele>
        <time>2016-07-31T07:52:35Z</time>
      </trkpt>
      <trkpt lat="42.44156" lon="0.04629">
        <ele>707.9</ele>
        <time>2016-07-31T07:52:37Z</time>
      </trkpt>
      <trkpt lat="42.44151" lon="0.04631">
        <ele>707.9</ele>
        <time>2016-07-31T07:52:39Z</time>
      </trkpt>
      <trkpt lat="42.44147" lon="0.04633">
        <ele>708</ele>
        <time>2016-07-31T07:52:41Z</time>
      </trkpt>
      <trkpt lat="42.44142" lon="0.04634">
        <ele>708.1</ele>
        <time>2016-07-31T07:52:43Z</time>
      </trkpt>
      <trkpt lat="42.44137" lon="0.04633">
        <ele>708.2</ele>
        <time>2016-07-31T07:52:45Z</time>
      </trkpt>
      <trkpt lat="42.44133" lon="0.04631">
        <ele>708.2</ele>
        <time>2016-07-31T07:52:47Z</time>
      </trkpt>
      <trkpt lat="42.44128" lon="0.0463">
        <ele>708.2</ele>
        <time>2016-07-31T07:52:49Z</time>
      </trkpt>
      <trkpt lat="42.44123" lon="0.04628">
        <ele>708.7</ele>
        <time>2016-07-31T07:52:51Z</time>
      </trkpt>
      <trkpt lat="42.44119" lon="0.04626">
        <ele>709.9</ele>
        <time>2016-07-31T07:52:53Z</time>
      </trkpt>
      <trkpt lat="42.44114" lon="0.04624">
        <ele>711.4</ele>
        <time>2016-07-31T07:52:55Z</time>
      </trkpt>
      <trkpt lat="42.44109" lon="0.04623">
        <ele>712.9</ele>
        <time>2016-07-31T07:52:57Z</time>
      </trkpt>
      <trkpt lat="42.44105" lon="0.04621">
        <ele>714.5</ele>
        <time>2016-07-31T07:52:59Z</time>
      </trkpt>
      <trkpt lat="42.441" lon="0.04619">
        <ele>716</ele>
        <time>2016-07-31T07:53:01Z</time>
      </trkpt>
      <trkpt lat="42.44096" lon="0.04616">
        <ele>717.5</ele>
        <time>2016-07-31T07:53:03Z</time>
      </trkpt>
      <trkpt lat="42.44091" lon="0.04614">
        <ele>718.9</ele>
        <time>2016-07-31T07:53:05Z</time>
      </trkpt>
      <trkpt lat="42.44086" lon="0.04611">
        <ele>720.3</ele>
        <time>2016-07-31T07:53:07Z</time>
      </trkpt>
      <trkpt lat="42.44082" lon="0.04609">
        <ele>721.4</ele>
        <time>2016-07-31T07:53:09Z</time>
      </trkpt>
      <trkpt lat="42.44077" lon="0.04608">
        <ele>722.6</ele>
        <time>2016-07-31T07:53:11Z</time>
      </trkpt>
      <trkpt lat="42.44072" lon="0.04606">
        <ele>723.6</ele>
        <time>2016-07-31T07:53:13Z</time>
      </trkpt>
      <trkpt lat="42.44068" lon="0.04604">
        <ele>724.7</ele>
        <time>2016-07-31T07:53:15Z</time>
      </trkpt>
      <trkpt lat="42.44063" lon="0.04603">
        <ele>725.6</ele>
        <time>2016-07-31T07:53:17Z</time>
      </trkpt>
      <trkpt lat="42.44058" lon="0.04601">
        <ele>726.5</ele>
        <time>2016-07-31T07:53:19Z</time>
      </trkpt>
      <trkpt lat="42.44054" lon="0.04599">
        <ele>727.2</ele>
        <time>2016-07-31T07:53:21Z</time>
      </trkpt>
      <trkpt lat="42.44049" lon="0.04597">
        <ele>727.9</ele>
        <time>2016-07-31T07:53:23Z</time>
      </trkpt>
      <trkpt lat="42.44045" lon="0.04595">
        <ele>728.6</ele>
        <time>2016-07-31T07:53:25Z</time>
      </trkpt>
      <trkpt lat="42.4404" lon="0.04593">
        <ele>729.5</ele>
        <time>2016-07-31T07:53:27Z</time>
      </trkpt>
      <trkpt lat="42.44035" lon="0.0459">
        <ele>731.1</ele>
        <time>2016-07-31T07:53:29Z</time>
      </trkpt>
      <trkpt lat="42.44031" lon="0.04588">
        <ele>732.5</ele>
        <time>2016-07-31T07:53:31Z</time>
      </trkpt>
      <trkpt lat="42.44027" lon="0.04585">
        <ele>733.8</ele>
        <time>2016-07-31T07:53:33Z</time>
      </trkpt>
      <trkpt lat="42.44022" lon="0.04582">
        <ele>735</ele>
        <time>2016-07-31T07:53:35Z</time>
      </trkpt>
      <trkpt lat="42.44018" lon="0.04578">
        <ele>736.1</ele>
        <time>2016-07-31T07:53:37Z</time>
      </trkpt>
      <trkpt lat="42.44015" lon="0.04574">
        <ele>736.7</ele>
        <time>2016-07-31T07:53:39Z</time>
      </trkpt>
      <trkpt lat="42.44012" lon="0.04568">
        <ele>736.9</ele>
        <time>2016-07-31T07:53:41Z</time>
      </trkpt>
      <trkpt lat="42.44009" lon="0.04562">
        <ele>736.9</ele>
        <time>2016-07-31T07:53:43Z</time>
      </trkpt>
      <trkpt lat="42.44007" lon="0.04556">
        <ele>736.6</ele>
        <time>2016-07-31T07:53:45Z</time>
      </trkpt>
      <trkpt lat="42.44006" lon="0.04549">
        <ele>736</ele>
        <time>2016-07-31T07:53:47Z</time>
      </trkpt>
      <trkpt lat="42.44005" lon="0.04545">
        <ele>735.6</ele>
        <time>2016-07-31T07:53:48Z</time>
      </trkpt>
      <trkpt lat="42.44005" lon="0.04541">
        <ele>735.1</ele>
        <time>2016-07-31T07:53:49Z</time>
      </trkpt>
      <trkpt lat="42.44005" lon="0.04538">
        <ele>735.4</ele>
        <time>2016-07-31T07:53:50Z</time>
      </trkpt>
      <trkpt lat="42.44005" lon="0.04534">
        <ele>735.6</ele>
        <time>2016-07-31T07:53:51Z</time>
      </trkpt>
      <trkpt lat="42.44006" lon="0.0453">
        <ele>735.8</ele>
        <time>2016-07-31T07:53:52Z</time>
      </trkpt>
      <trkpt lat="42.44007" lon="0.04526">
        <ele>735.8</ele>
        <time>2016-07-31T07:53:53Z</time>
      </trkpt>
      <trkpt lat="42.44008" lon="0.04523">
        <ele>735.7</ele>
        <time>2016-07-31T07:53:54Z</time>
      </trkpt>
      <trkpt lat="42.44011" lon="0.0452">
        <ele>735.6</ele>
        <time>2016-07-31T07:53:55Z</time>
      </trkpt>
      <trkpt lat="42.44013" lon="0.04517">
        <ele>735.4</ele>
        <time>2016-07-31T07:53:56Z</time>
      </trkpt>
      <trkpt lat="42.44016" lon="0.04515">
        <ele>735.2</ele>
        <time>2016-07-31T07:53:57Z</time>
      </trkpt>
      <trkpt lat="42.44019" lon="0.04513">
        <ele>734.9</ele>
        <time>2016-07-31T07:53:58Z</time>
      </trkpt>
      <trkpt lat="42.44022" lon="0.04512">
        <ele>734.7</ele>
        <time>2016-07-31T07:53:59Z</time>
      </trkpt>
      <trkpt lat="42.44026" lon="0.04511">
        <ele>734.4</ele>
        <time>2016-07-31T07:54:00Z</time>
      </trkpt>
      <trkpt lat="42.44029" lon="0.0451">
        <ele>734.1</ele>
        <time>2016-07-31T07:54:01Z</time>
      </trkpt>
      <trkpt lat="42.44032" lon="0.0451">
        <ele>733.8</ele>
        <time>2016-07-31T07:54:02Z</time>
      </trkpt>
      <trkpt lat="42.44035" lon="0.0451">
        <ele>733.4</ele>
        <time>2016-07-31T07:54:03Z</time>
      </trkpt>
      <trkpt lat="42.44038" lon="0.0451">
        <ele>732.9</ele>
        <time>2016-07-31T07:54:04Z</time>
      </trkpt>
      <trkpt lat="42.44041" lon="0.04511">
        <ele>732.3</ele>
        <time>2016-07-31T07:54:05Z</time>
      </trkpt>
      <trkpt lat="42.44044" lon="0.04512">
        <ele>732</ele>
        <time>2016-07-31T07:54:06Z</time>
      </trkpt>
      <trkpt lat="42.44047" lon="0.04514">
        <ele>731.7</ele>
        <time>2016-07-31T07:54:07Z</time>
      </trkpt>
      <trkpt lat="42.44049" lon="0.04515">
        <ele>731.5</ele>
        <time>2016-07-31T07:54:08Z</time>
      </trkpt>
      <trkpt lat="42.44052" lon="0.04517">
        <ele>731.2</ele>
        <time>2016-07-31T07:54:09Z</time>
      </trkpt>
      <trkpt lat="42.44054" lon="0.04518">
        <ele>731</ele>
        <time>2016-07-31T07:54:10Z</time>
      </trkpt>
      <trkpt lat="42.44059" lon="0.04521">
        <ele>730.5</ele>
        <time>2016-07-31T07:54:12Z</time>
      </trkpt>
      <trkpt lat="42.44064" lon="0.04523">
        <ele>730.1</ele>
        <time>2016-07-31T07:54:14Z</time>
      </trkpt>
      <trkpt lat="42.44069" lon="0.04525">
        <ele>729.7</ele>
        <time>2016-07-31T07:54:16Z</time>
      </trkpt>
      <trkpt lat="42.44073" lon="0.04527">
        <ele>729.4</ele>
        <time>2016-07-31T07:54:18Z</time>
      </trkpt>
      <trkpt lat="42.44078" lon="0.04528">
        <ele>729.3</ele>
        <time>2016-07-31T07:54:20Z</time>
      </trkpt>
      <trkpt lat="42.44083" lon="0.04528">
        <ele>729.7</ele>
        <time>2016-07-31T07:54:22Z</time>
      </trkpt>
      <trkpt lat="42.44088" lon="0.04527">
        <ele>730.3</ele>
        <time>2016-07-31T07:54:24Z</time>
      </trkpt>
      <trkpt lat="42.44093" lon="0.04526">
        <ele>730.9</ele>
        <time>2016-07-31T07:54:26Z</time>
      </trkpt>
      <trkpt lat="42.44098" lon="0.04524">
        <ele>731.6</ele>
        <time>2016-07-31T07:54:28Z</time>
      </trkpt>
      <trkpt lat="42.44103" lon="0.04523">
        <ele>732.2</ele>
        <time>2016-07-31T07:54:30Z</time>
      </trkpt>
      <trkpt lat="42.44108" lon="0.04523">
        <ele>732.7</ele>
        <time>2016-07-31T07:54:32Z</time>
      </trkpt>
      <trkpt lat="42.44113" lon="0.04521">
        <ele>733.4</ele>
        <time>2016-07-31T07:54:34Z</time>
      </trkpt>
      <trkpt lat="42.44117" lon="0.04519">
        <ele>734.4</ele>
        <time>2016-07-31T07:54:36Z</time>
      </trkpt>
      <trkpt lat="42.44122" lon="0.04517">
        <ele>735.3</ele>
        <time>2016-07-31T07:54:38Z</time>
      </trkpt>
      <trkpt lat="42.44127" lon="0.04516">
        <ele>736.1</ele>
        <time>2016-07-31T07:54:40Z</time>
      </trkpt>
      <trkpt lat="42.44132" lon="0.04514">
        <ele>736.8</ele>
        <time>2016-07-31T07:54:42Z</time>
      </trkpt>
      <trkpt lat="42.44137" lon="0.04513">
        <ele>737.4</ele>
        <time>2016-07-31T07:54:44Z</time>
      </trkpt>
      <trkpt lat="42.44142" lon="0.04512">
        <ele>738.2</ele>
        <time>2016-07-31T07:54:46Z</time>
      </trkpt>
      <trkpt lat="42.44147" lon="0.0451">
        <ele>738.9</ele>
        <time>2016-07-31T07:54:48Z</time>
      </trkpt>
      <trkpt lat="42.4415" lon="0.04509">
        <ele>739.3</ele>
        <time>2016-07-31T07:54:49Z</time>
      </trkpt>
      <trkpt lat="42.44155" lon="0.04508">
        <ele>740.1</ele>
        <time>2016-07-31T07:54:51Z</time>
      </trkpt>
      <trkpt lat="42.4416" lon="0.04506">
        <ele>740.9</ele>
        <time>2016-07-31T07:54:53Z</time>
      </trkpt>
      <trkpt lat="42.44164" lon="0.04504">
        <ele>741.6</ele>
        <time>2016-07-31T07:54:55Z</time>
      </trkpt>
      <trkpt lat="42.44169" lon="0.04503">
        <ele>742.4</ele>
        <time>2016-07-31T07:54:57Z</time>
      </trkpt>
      <trkpt lat="42.44174" lon="0.04501">
        <ele>743.3</ele>
        <time>2016-07-31T07:54:59Z</time>
      </trkpt>
      <trkpt lat="42.44178" lon="0.04499">
        <ele>744.1</ele>
        <time>2016-07-31T07:55:01Z</time>
      </trkpt>
      <trkpt lat="42.44183" lon="0.04497">
        <ele>744.8</ele>
        <time>2016-07-31T07:55:03Z</time>
      </trkpt>
      <trkpt lat="42.44188" lon="0.04495">
        <ele>745.7</ele>
        <time>2016-07-31T07:55:05Z</time>
      </trkpt>
      <trkpt lat="42.44193" lon="0.04494">
        <ele>746.5</ele>
        <time>2016-07-31T07:55:07Z</time>
      </trkpt>
      <trkpt lat="42.44197" lon="0.04492">
        <ele>747.1</ele>
        <time>2016-07-31T07:55:09Z</time>
      </trkpt>
      <trkpt lat="42.44202" lon="0.04491">
        <ele>747.9</ele>
        <time>2016-07-31T07:55:11Z</time>
      </trkpt>
      <trkpt lat="42.44207" lon="0.04489">
        <ele>748.7</ele>
        <time>2016-07-31T07:55:13Z</time>
      </trkpt>
      <trkpt lat="42.44211" lon="0.04487">
        <ele>749.2</ele>
        <time>2016-07-31T07:55:15Z</time>
      </trkpt>
      <trkpt lat="42.44216" lon="0.04486">
        <ele>749.6</ele>
        <time>2016-07-31T07:55:17Z</time>
      </trkpt>
      <trkpt lat="42.4422" lon="0.04484">
        <ele>750.1</ele>
        <time>2016-07-31T07:55:19Z</time>
      </trkpt>
      <trkpt lat="42.44224" lon="0.04483">
        <ele>750.6</ele>
        <time>2016-07-31T07:55:21Z</time>
      </trkpt>
      <trkpt lat="42.44229" lon="0.04481">
        <ele>751</ele>
        <time>2016-07-31T07:55:23Z</time>
      </trkpt>
      <trkpt lat="42.44233" lon="0.0448">
        <ele>751.5</ele>
        <time>2016-07-31T07:55:25Z</time>
      </trkpt>
      <trkpt lat="42.44238" lon="0.04478">
        <ele>752.1</ele>
        <time>2016-07-31T07:55:27Z</time>
      </trkpt>
      <trkpt lat="42.44243" lon="0.04476">
        <ele>752.5</ele>
        <time>2016-07-31T07:55:29Z</time>
      </trkpt>
      <trkpt lat="42.44248" lon="0.04476">
        <ele>752.7</ele>
        <time>2016-07-31T07:55:31Z</time>
      </trkpt>
      <trkpt lat="42.44253" lon="0.04476">
        <ele>752.7</ele>
        <time>2016-07-31T07:55:33Z</time>
      </trkpt>
      <trkpt lat="42.44257" lon="0.04476">
        <ele>752.5</ele>
        <time>2016-07-31T07:55:35Z</time>
      </trkpt>
      <trkpt lat="42.4426" lon="0.04476">
        <ele>752.3</ele>
        <time>2016-07-31T07:55:36Z</time>
      </trkpt>
      <trkpt lat="42.44262" lon="0.04477">
        <ele>752.1</ele>
        <time>2016-07-31T07:55:37Z</time>
      </trkpt>
      <trkpt lat="42.44268" lon="0.04478">
        <ele>751.8</ele>
        <time>2016-07-31T07:55:39Z</time>
      </trkpt>
      <trkpt lat="42.44272" lon="0.04478">
        <ele>751.7</ele>
        <time>2016-07-31T07:55:41Z</time>
      </trkpt>
      <trkpt lat="42.44277" lon="0.04478">
        <ele>751.5</ele>
        <time>2016-07-31T07:55:43Z</time>
      </trkpt>
      <trkpt lat="42.44281" lon="0.04479">
        <ele>751.3</ele>
        <time>2016-07-31T07:55:45Z</time>
      </trkpt>
      <trkpt lat="42.44286" lon="0.04479">
        <ele>751.1</ele>
        <time>2016-07-31T07:55:47Z</time>
      </trkpt>
      <trkpt lat="42.44289" lon="0.0448">
        <ele>750.9</ele>
        <time>2016-07-31T07:55:48Z</time>
      </trkpt>
      <trkpt lat="42.44294" lon="0.0448">
        <ele>750.8</ele>
        <time>2016-07-31T07:55:50Z</time>
      </trkpt>
      <trkpt lat="42.44299" lon="0.0448">
        <ele>750.9</ele>
        <time>2016-07-31T07:55:52Z</time>
      </trkpt>
      <trkpt lat="42.44304" lon="0.0448">
        <ele>751.2</ele>
        <time>2016-07-31T07:55:54Z</time>
      </trkpt>
      <trkpt lat="42.44309" lon="0.0448">
        <ele>751.6</ele>
        <time>2016-07-31T07:55:56Z</time>
      </trkpt>
      <trkpt lat="42.44314" lon="0.04479">
        <ele>751.9</ele>
        <time>2016-07-31T07:55:58Z</time>
      </trkpt>
      <trkpt lat="42.44319" lon="0.04479">
        <ele>752.2</ele>
        <time>2016-07-31T07:56:00Z</time>
      </trkpt>
      <trkpt lat="42.44324" lon="0.04479">
        <ele>752.6</ele>
        <time>2016-07-31T07:56:02Z</time>
      </trkpt>
      <trkpt lat="42.44329" lon="0.04478">
        <ele>753</ele>
        <time>2016-07-31T07:56:04Z</time>
      </trkpt>
      <trkpt lat="42.44334" lon="0.04477">
        <ele>753.6</ele>
        <time>2016-07-31T07:56:06Z</time>
      </trkpt>
      <trkpt lat="42.44339" lon="0.04476">
        <ele>754.3</ele>
        <time>2016-07-31T07:56:08Z</time>
      </trkpt>
      <trkpt lat="42.44343" lon="0.04474">
        <ele>755</ele>
        <time>2016-07-31T07:56:10Z</time>
      </trkpt>
      <trkpt lat="42.44348" lon="0.04473">
        <ele>755.6</ele>
        <time>2016-07-31T07:56:12Z</time>
      </trkpt>
      <trkpt lat="42.44353" lon="0.04473">
        <ele>756.1</ele>
        <time>2016-07-31T07:56:14Z</time>
      </trkpt>
      <trkpt lat="42.44357" lon="0.04472">
        <ele>756.5</ele>
        <time>2016-07-31T07:56:16Z</time>
      </trkpt>
      <trkpt lat="42.44363" lon="0.04471">
        <ele>757.1</ele>
        <time>2016-07-31T07:56:18Z</time>
      </trkpt>
      <trkpt lat="42.44368" lon="0.04471">
        <ele>757.5</ele>
        <time>2016-07-31T07:56:20Z</time>
      </trkpt>
      <trkpt lat="42.44373" lon="0.0447">
        <ele>758</ele>
        <time>2016-07-31T07:56:22Z</time>
      </trkpt>
      <trkpt lat="42.44378" lon="0.0447">
        <ele>758</ele>
        <time>2016-07-31T07:56:24Z</time>
      </trkpt>
      <trkpt lat="42.44383" lon="0.0447">
        <ele>757.9</ele>
        <time>2016-07-31T07:56:26Z</time>
      </trkpt>
      <trkpt lat="42.44388" lon="0.0447">
        <ele>757.9</ele>
        <time>2016-07-31T07:56:28Z</time>
      </trkpt>
      <trkpt lat="42.44392" lon="0.0447">
        <ele>757.7</ele>
        <time>2016-07-31T07:56:30Z</time>
      </trkpt>
      <trkpt lat="42.44397" lon="0.0447">
        <ele>757.6</ele>
        <time>2016-07-31T07:56:32Z</time>
      </trkpt>
      <trkpt lat="42.44402" lon="0.0447">
        <ele>757.4</ele>
        <time>2016-07-31T07:56:34Z</time>
      </trkpt>
      <trkpt lat="42.44407" lon="0.04471">
        <ele>756.9</ele>
        <time>2016-07-31T07:56:36Z</time>
      </trkpt>
      <trkpt lat="42.44412" lon="0.04471">
        <ele>756.8</ele>
        <time>2016-07-31T07:56:38Z</time>
      </trkpt>
      <trkpt lat="42.44415" lon="0.0447">
        <ele>756.8</ele>
        <time>2016-07-31T07:56:39Z</time>
      </trkpt>
      <trkpt lat="42.4442" lon="0.0447">
        <ele>757</ele>
        <time>2016-07-31T07:56:41Z</time>
      </trkpt>
      <trkpt lat="42.44425" lon="0.04468">
        <ele>757.4</ele>
        <time>2016-07-31T07:56:43Z</time>
      </trkpt>
      <trkpt lat="42.44428" lon="0.04468">
        <ele>757.5</ele>
        <time>2016-07-31T07:56:44Z</time>
      </trkpt>
      <trkpt lat="42.44431" lon="0.04467">
        <ele>757.8</ele>
        <time>2016-07-31T07:56:45Z</time>
      </trkpt>
      <trkpt lat="42.44434" lon="0.04465">
        <ele>758.2</ele>
        <time>2016-07-31T07:56:46Z</time>
      </trkpt>
      <trkpt lat="42.44436" lon="0.04464">
        <ele>758.6</ele>
        <time>2016-07-31T07:56:47Z</time>
      </trkpt>
      <trkpt lat="42.44439" lon="0.04463">
        <ele>759.1</ele>
        <time>2016-07-31T07:56:48Z</time>
      </trkpt>
      <trkpt lat="42.44443" lon="0.04459">
        <ele>760.4</ele>
        <time>2016-07-31T07:56:50Z</time>
      </trkpt>
      <trkpt lat="42.44446" lon="0.04456">
        <ele>761.1</ele>
        <time>2016-07-31T07:56:51Z</time>
      </trkpt>
      <trkpt lat="42.44448" lon="0.04453">
        <ele>761.7</ele>
        <time>2016-07-31T07:56:52Z</time>
      </trkpt>
      <trkpt lat="42.44451" lon="0.04448">
        <ele>763</ele>
        <time>2016-07-31T07:56:54Z</time>
      </trkpt>
      <trkpt lat="42.44453" lon="0.04442">
        <ele>764.7</ele>
        <time>2016-07-31T07:56:56Z</time>
      </trkpt>
      <trkpt lat="42.44453" lon="0.04435">
        <ele>766.5</ele>
        <time>2016-07-31T07:56:58Z</time>
      </trkpt>
      <trkpt lat="42.44453" lon="0.04428">
        <ele>768.3</ele>
        <time>2016-07-31T07:57:00Z</time>
      </trkpt>
      <trkpt lat="42.44452" lon="0.04422">
        <ele>770</ele>
        <time>2016-07-31T07:57:02Z</time>
      </trkpt>
      <trkpt lat="42.44449" lon="0.04416">
        <ele>771.7</ele>
        <time>2016-07-31T07:57:04Z</time>
      </trkpt>
      <trkpt lat="42.44445" lon="0.04411">
        <ele>773.3</ele>
        <time>2016-07-31T07:57:06Z</time>
      </trkpt>
      <trkpt lat="42.44444" lon="0.04408">
        <ele>774.2</ele>
        <time>2016-07-31T07:57:07Z</time>
      </trkpt>
      <trkpt lat="42.4444" lon="0.04404">
        <ele>775.6</ele>
        <time>2016-07-31T07:57:09Z</time>
      </trkpt>
      <trkpt lat="42.44435" lon="0.04401">
        <ele>776.6</ele>
        <time>2016-07-31T07:57:11Z</time>
      </trkpt>
      <trkpt lat="42.4443" lon="0.04399">
        <ele>777.3</ele>
        <time>2016-07-31T07:57:13Z</time>
      </trkpt>
      <trkpt lat="42.44428" lon="0.04399">
        <ele>777.6</ele>
        <time>2016-07-31T07:57:14Z</time>
      </trkpt>
      <trkpt lat="42.44425" lon="0.04399">
        <ele>777.7</ele>
        <time>2016-07-31T07:57:15Z</time>
      </trkpt>
      <trkpt lat="42.44422" lon="0.044">
        <ele>777.6</ele>
        <time>2016-07-31T07:57:16Z</time>
      </trkpt>
      <trkpt lat="42.44419" lon="0.04401">
        <ele>777.4</ele>
        <time>2016-07-31T07:57:17Z</time>
      </trkpt>
      <trkpt lat="42.44414" lon="0.04405">
        <ele>776.8</ele>
        <time>2016-07-31T07:57:19Z</time>
      </trkpt>
      <trkpt lat="42.44412" lon="0.04407">
        <ele>776.4</ele>
        <time>2016-07-31T07:57:20Z</time>
      </trkpt>
      <trkpt lat="42.44409" lon="0.04409">
        <ele>776</ele>
        <time>2016-07-31T07:57:21Z</time>
      </trkpt>
      <trkpt lat="42.44407" lon="0.04411">
        <ele>775.6</ele>
        <time>2016-07-31T07:57:22Z</time>
      </trkpt>
      <trkpt lat="42.44402" lon="0.04414">
        <ele>774.7</ele>
        <time>2016-07-31T07:57:24Z</time>
      </trkpt>
      <trkpt lat="42.44397" lon="0.04418">
        <ele>773.8</ele>
        <time>2016-07-31T07:57:26Z</time>
      </trkpt>
      <trkpt lat="42.44395" lon="0.0442">
        <ele>773.4</ele>
        <time>2016-07-31T07:57:27Z</time>
      </trkpt>
      <trkpt lat="42.44393" lon="0.04422">
        <ele>773</ele>
        <time>2016-07-31T07:57:28Z</time>
      </trkpt>
      <trkpt lat="42.44388" lon="0.04425">
        <ele>772.3</ele>
        <time>2016-07-31T07:57:30Z</time>
      </trkpt>
      <trkpt lat="42.44383" lon="0.04428">
        <ele>771.6</ele>
        <time>2016-07-31T07:57:32Z</time>
      </trkpt>
      <trkpt lat="42.44378" lon="0.0443">
        <ele>771.3</ele>
        <time>2016-07-31T07:57:34Z</time>
      </trkpt>
      <trkpt lat="42.44373" lon="0.04431">
        <ele>771.1</ele>
        <time>2016-07-31T07:57:36Z</time>
      </trkpt>
      <trkpt lat="42.44368" lon="0.04432">
        <ele>770.7</ele>
        <time>2016-07-31T07:57:38Z</time>
      </trkpt>
      <trkpt lat="42.44362" lon="0.0443">
        <ele>770.8</ele>
        <time>2016-07-31T07:57:40Z</time>
      </trkpt>
      <trkpt lat="42.4436" lon="0.04429">
        <ele>771.1</ele>
        <time>2016-07-31T07:57:41Z</time>
      </trkpt>
      <trkpt lat="42.44357" lon="0.04428">
        <ele>771.4</ele>
        <time>2016-07-31T07:57:42Z</time>
      </trkpt>
      <trkpt lat="42.44354" lon="0.04426">
        <ele>771.7</ele>
        <time>2016-07-31T07:57:43Z</time>
      </trkpt>
      <trkpt lat="42.44352" lon="0.04425">
        <ele>772</ele>
        <time>2016-07-31T07:57:44Z</time>
      </trkpt>
      <trkpt lat="42.44349" lon="0.04423">
        <ele>772.3</ele>
        <time>2016-07-31T07:57:45Z</time>
      </trkpt>
      <trkpt lat="42.44344" lon="0.04421">
        <ele>772.7</ele>
        <time>2016-07-31T07:57:47Z</time>
      </trkpt>
      <trkpt lat="42.44339" lon="0.0442">
        <ele>772.9</ele>
        <time>2016-07-31T07:57:49Z</time>
      </trkpt>
      <trkpt lat="42.44334" lon="0.04418">
        <ele>773.3</ele>
        <time>2016-07-31T07:57:51Z</time>
      </trkpt>
      <trkpt lat="42.44329" lon="0.04416">
        <ele>773.7</ele>
        <time>2016-07-31T07:57:53Z</time>
      </trkpt>
      <trkpt lat="42.44324" lon="0.04415">
        <ele>774</ele>
        <time>2016-07-31T07:57:55Z</time>
      </trkpt>
      <trkpt lat="42.44319" lon="0.04413">
        <ele>774.4</ele>
        <time>2016-07-31T07:57:57Z</time>
      </trkpt>
      <trkpt lat="42.44317" lon="0.04412">
        <ele>774.6</ele>
        <time>2016-07-31T07:57:58Z</time>
      </trkpt>
      <trkpt lat="42.44312" lon="0.0441">
        <ele>774.9</ele>
        <time>2016-07-31T07:58:00Z</time>
      </trkpt>
      <trkpt lat="42.44306" lon="0.04409">
        <ele>775.3</ele>
        <time>2016-07-31T07:58:02Z</time>
      </trkpt>
      <trkpt lat="42.44302" lon="0.04407">
        <ele>775.7</ele>
        <time>2016-07-31T07:58:04Z</time>
      </trkpt>
      <trkpt lat="42.44297" lon="0.04405">
        <ele>776</ele>
        <time>2016-07-31T07:58:06Z</time>
      </trkpt>
      <trkpt lat="42.44294" lon="0.04405">
        <ele>776.1</ele>
        <time>2016-07-31T07:58:07Z</time>
      </trkpt>
      <trkpt lat="42.44291" lon="0.04404">
        <ele>776.3</ele>
        <time>2016-07-31T07:58:08Z</time>
      </trkpt>
      <trkpt lat="42.44286" lon="0.04402">
        <ele>777</ele>
        <time>2016-07-31T07:58:10Z</time>
      </trkpt>
      <trkpt lat="42.44281" lon="0.04401">
        <ele>777.7</ele>
        <time>2016-07-31T07:58:12Z</time>
      </trkpt>
      <trkpt lat="42.44277" lon="0.04399">
        <ele>778.5</ele>
        <time>2016-07-31T07:58:14Z</time>
      </trkpt>
      <trkpt lat="42.44272" lon="0.04398">
        <ele>778.9</ele>
        <time>2016-07-31T07:58:16Z</time>
      </trkpt>
      <trkpt lat="42.44267" lon="0.04398">
        <ele>779.1</ele>
        <time>2016-07-31T07:58:18Z</time>
      </trkpt>
      <trkpt lat="42.44262" lon="0.04398">
        <ele>779.3</ele>
        <time>2016-07-31T07:58:20Z</time>
      </trkpt>
      <trkpt lat="42.44257" lon="0.04397">
        <ele>779.7</ele>
        <time>2016-07-31T07:58:22Z</time>
      </trkpt>
      <trkpt lat="42.44252" lon="0.04395">
        <ele>780.3</ele>
        <time>2016-07-31T07:58:24Z</time>
      </trkpt>
      <trkpt lat="42.44247" lon="0.04394">
        <ele>781.1</ele>
        <time>2016-07-31T07:58:26Z</time>
      </trkpt>
      <trkpt lat="42.44243" lon="0.04392">
        <ele>782</ele>
        <time>2016-07-31T07:58:28Z</time>
      </trkpt>
      <trkpt lat="42.44238" lon="0.04389">
        <ele>782.9</ele>
        <time>2016-07-31T07:58:30Z</time>
      </trkpt>
      <trkpt lat="42.44233" lon="0.04387">
        <ele>783.7</ele>
        <time>2016-07-31T07:58:32Z</time>
      </trkpt>
      <trkpt lat="42.44228" lon="0.04386">
        <ele>784.4</ele>
        <time>2016-07-31T07:58:34Z</time>
      </trkpt>
      <trkpt lat="42.44223" lon="0.04385">
        <ele>785</ele>
        <time>2016-07-31T07:58:36Z</time>
      </trkpt>
      <trkpt lat="42.44218" lon="0.04383">
        <ele>785.7</ele>
        <time>2016-07-31T07:58:38Z</time>
      </trkpt>
      <trkpt lat="42.44213" lon="0.04382">
        <ele>786.4</ele>
        <time>2016-07-31T07:58:40Z</time>
      </trkpt>
      <trkpt lat="42.44208" lon="0.04379">
        <ele>787.4</ele>
        <time>2016-07-31T07:58:42Z</time>
      </trkpt>
      <trkpt lat="42.44203" lon="0.04377">
        <ele>788.1</ele>
        <time>2016-07-31T07:58:44Z</time>
      </trkpt>
      <trkpt lat="42.44198" lon="0.04375">
        <ele>788.5</ele>
        <time>2016-07-31T07:58:46Z</time>
      </trkpt>
      <trkpt lat="42.44196" lon="0.04374">
        <ele>788.6</ele>
        <time>2016-07-31T07:58:47Z</time>
      </trkpt>
      <trkpt lat="42.44193" lon="0.04374">
        <ele>788.8</ele>
        <time>2016-07-31T07:58:48Z</time>
      </trkpt>
      <trkpt lat="42.4419" lon="0.04373">
        <ele>789</ele>
        <time>2016-07-31T07:58:49Z</time>
      </trkpt>
      <trkpt lat="42.44186" lon="0.04371">
        <ele>789.4</ele>
        <time>2016-07-31T07:58:51Z</time>
      </trkpt>
      <trkpt lat="42.44181" lon="0.04369">
        <ele>789.8</ele>
        <time>2016-07-31T07:58:53Z</time>
      </trkpt>
      <trkpt lat="42.44176" lon="0.04367">
        <ele>790.3</ele>
        <time>2016-07-31T07:58:55Z</time>
      </trkpt>
      <trkpt lat="42.44171" lon="0.04365">
        <ele>790.7</ele>
        <time>2016-07-31T07:58:57Z</time>
      </trkpt>
      <trkpt lat="42.44166" lon="0.04364">
        <ele>790.9</ele>
        <time>2016-07-31T07:58:59Z</time>
      </trkpt>
      <trkpt lat="42.44162" lon="0.04362">
        <ele>791.3</ele>
        <time>2016-07-31T07:59:01Z</time>
      </trkpt>
      <trkpt lat="42.44157" lon="0.0436">
        <ele>791.8</ele>
        <time>2016-07-31T07:59:03Z</time>
      </trkpt>
      <trkpt lat="42.44153" lon="0.04358">
        <ele>792.1</ele>
        <time>2016-07-31T07:59:05Z</time>
      </trkpt>
      <trkpt lat="42.44148" lon="0.04357">
        <ele>792.3</ele>
        <time>2016-07-31T07:59:07Z</time>
      </trkpt>
      <trkpt lat="42.44143" lon="0.04355">
        <ele>792.6</ele>
        <time>2016-07-31T07:59:09Z</time>
      </trkpt>
      <trkpt lat="42.44138" lon="0.04354">
        <ele>792.9</ele>
        <time>2016-07-31T07:59:11Z</time>
      </trkpt>
      <trkpt lat="42.44133" lon="0.04352">
        <ele>793.2</ele>
        <time>2016-07-31T07:59:13Z</time>
      </trkpt>
      <trkpt lat="42.44128" lon="0.04349">
        <ele>793.8</ele>
        <time>2016-07-31T07:59:15Z</time>
      </trkpt>
      <trkpt lat="42.44124" lon="0.04348">
        <ele>794</ele>
        <time>2016-07-31T07:59:17Z</time>
      </trkpt>
      <trkpt lat="42.44119" lon="0.04346">
        <ele>793.8</ele>
        <time>2016-07-31T07:59:19Z</time>
      </trkpt>
      <trkpt lat="42.44114" lon="0.04345">
        <ele>793.6</ele>
        <time>2016-07-31T07:59:21Z</time>
      </trkpt>
      <trkpt lat="42.44109" lon="0.04344">
        <ele>793.3</ele>
        <time>2016-07-31T07:59:23Z</time>
      </trkpt>
      <trkpt lat="42.44105" lon="0.04342">
        <ele>793.2</ele>
        <time>2016-07-31T07:59:25Z</time>
      </trkpt>
      <trkpt lat="42.441" lon="0.04341">
        <ele>793.1</ele>
        <time>2016-07-31T07:59:27Z</time>
      </trkpt>
      <trkpt lat="42.44095" lon="0.0434">
        <ele>792.9</ele>
        <time>2016-07-31T07:59:29Z</time>
      </trkpt>
      <trkpt lat="42.44091" lon="0.04338">
        <ele>792.8</ele>
        <time>2016-07-31T07:59:31Z</time>
      </trkpt>
      <trkpt lat="42.44086" lon="0.04336">
        <ele>792.8</ele>
        <time>2016-07-31T07:59:33Z</time>
      </trkpt>
      <trkpt lat="42.44081" lon="0.04334">
        <ele>792.9</ele>
        <time>2016-07-31T07:59:35Z</time>
      </trkpt>
      <trkpt lat="42.44077" lon="0.04332">
        <ele>793</ele>
        <time>2016-07-31T07:59:37Z</time>
      </trkpt>
      <trkpt lat="42.44072" lon="0.0433">
        <ele>793.2</ele>
        <time>2016-07-31T07:59:39Z</time>
      </trkpt>
      <trkpt lat="42.44069" lon="0.04329">
        <ele>793.3</ele>
        <time>2016-07-31T07:59:40Z</time>
      </trkpt>
      <trkpt lat="42.44066" lon="0.04328">
        <ele>793.3</ele>
        <time>2016-07-31T07:59:41Z</time>
      </trkpt>
      <trkpt lat="42.44062" lon="0.04325">
        <ele>793.6</ele>
        <time>2016-07-31T07:59:43Z</time>
      </trkpt>
      <trkpt lat="42.44057" lon="0.04323">
        <ele>793.7</ele>
        <time>2016-07-31T07:59:45Z</time>
      </trkpt>
      <trkpt lat="42.44052" lon="0.04321">
        <ele>793.9</ele>
        <time>2016-07-31T07:59:47Z</time>
      </trkpt>
      <trkpt lat="42.44048" lon="0.04319">
        <ele>794.1</ele>
        <time>2016-07-31T07:59:49Z</time>
      </trkpt>
      <trkpt lat="42.44043" lon="0.04318">
        <ele>794.1</ele>
        <time>2016-07-31T07:59:51Z</time>
      </trkpt>
      <trkpt lat="42.44038" lon="0.04317">
        <ele>793.6</ele>
        <time>2016-07-31T07:59:53Z</time>
      </trkpt>
      <trkpt lat="42.44033" lon="0.04315">
        <ele>793.4</ele>
        <time>2016-07-31T07:59:55Z</time>
      </trkpt>
      <trkpt lat="42.44029" lon="0.04313">
        <ele>793.3</ele>
        <time>2016-07-31T07:59:57Z</time>
      </trkpt>
      <trkpt lat="42.44025" lon="0.0431">
        <ele>793.3</ele>
        <time>2016-07-31T07:59:59Z</time>
      </trkpt>
      <trkpt lat="42.4402" lon="0.04308">
        <ele>793.4</ele>
        <time>2016-07-31T08:00:01Z</time>
      </trkpt>
      <trkpt lat="42.44016" lon="0.04305">
        <ele>793.5</ele>
        <time>2016-07-31T08:00:03Z</time>
      </trkpt>
      <trkpt lat="42.44012" lon="0.04302">
        <ele>793.8</ele>
        <time>2016-07-31T08:00:05Z</time>
      </trkpt>
      <trkpt lat="42.44008" lon="0.04299">
        <ele>794.3</ele>
        <time>2016-07-31T08:00:07Z</time>
      </trkpt>
      <trkpt lat="42.44004" lon="0.04295">
        <ele>795.1</ele>
        <time>2016-07-31T08:00:09Z</time>
      </trkpt>
      <trkpt lat="42.44" lon="0.04291">
        <ele>796</ele>
        <time>2016-07-31T08:00:11Z</time>
      </trkpt>
      <trkpt lat="42.43996" lon="0.04287">
        <ele>796.8</ele>
        <time>2016-07-31T08:00:13Z</time>
      </trkpt>
      <trkpt lat="42.43992" lon="0.04283">
        <ele>797.4</ele>
        <time>2016-07-31T08:00:15Z</time>
      </trkpt>
      <trkpt lat="42.43988" lon="0.0428">
        <ele>798</ele>
        <time>2016-07-31T08:00:17Z</time>
      </trkpt>
      <trkpt lat="42.43984" lon="0.04277">
        <ele>798.7</ele>
        <time>2016-07-31T08:00:19Z</time>
      </trkpt>
      <trkpt lat="42.4398" lon="0.04273">
        <ele>799.5</ele>
        <time>2016-07-31T08:00:21Z</time>
      </trkpt>
      <trkpt lat="42.43976" lon="0.04269">
        <ele>800.4</ele>
        <time>2016-07-31T08:00:23Z</time>
      </trkpt>
      <trkpt lat="42.43972" lon="0.04266">
        <ele>801.3</ele>
        <time>2016-07-31T08:00:25Z</time>
      </trkpt>
      <trkpt lat="42.43968" lon="0.04262">
        <ele>802.2</ele>
        <time>2016-07-31T08:00:27Z</time>
      </trkpt>
      <trkpt lat="42.43964" lon="0.04258">
        <ele>803.2</ele>
        <time>2016-07-31T08:00:29Z</time>
      </trkpt>
      <trkpt lat="42.4396" lon="0.04255">
        <ele>804.2</ele>
        <time>2016-07-31T08:00:31Z</time>
      </trkpt>
      <trkpt lat="42.43956" lon="0.04251">
        <ele>805.1</ele>
        <time>2016-07-31T08:00:33Z</time>
      </trkpt>
      <trkpt lat="42.43952" lon="0.04248">
        <ele>805.9</ele>
        <time>2016-07-31T08:00:35Z</time>
      </trkpt>
      <trkpt lat="42.43948" lon="0.04244">
        <ele>806.9</ele>
        <time>2016-07-31T08:00:37Z</time>
      </trkpt>
      <trkpt lat="42.43945" lon="0.0424">
        <ele>807.9</ele>
        <time>2016-07-31T08:00:39Z</time>
      </trkpt>
      <trkpt lat="42.43941" lon="0.04236">
        <ele>808.8</ele>
        <time>2016-07-31T08:00:41Z</time>
      </trkpt>
      <trkpt lat="42.43936" lon="0.04233">
        <ele>809.5</ele>
        <time>2016-07-31T08:00:43Z</time>
      </trkpt>
      <trkpt lat="42.43932" lon="0.04229">
        <ele>810.2</ele>
        <time>2016-07-31T08:00:45Z</time>
      </trkpt>
      <trkpt lat="42.43928" lon="0.04226">
        <ele>811</ele>
        <time>2016-07-31T08:00:47Z</time>
      </trkpt>
      <trkpt lat="42.43924" lon="0.04222">
        <ele>811.6</ele>
        <time>2016-07-31T08:00:49Z</time>
      </trkpt>
      <trkpt lat="42.43919" lon="0.04219">
        <ele>812</ele>
        <time>2016-07-31T08:00:51Z</time>
      </trkpt>
      <trkpt lat="42.43915" lon="0.04216">
        <ele>812.6</ele>
        <time>2016-07-31T08:00:53Z</time>
      </trkpt>
      <trkpt lat="42.43911" lon="0.04213">
        <ele>813.2</ele>
        <time>2016-07-31T08:00:55Z</time>
      </trkpt>
      <trkpt lat="42.43907" lon="0.0421">
        <ele>813.7</ele>
        <time>2016-07-31T08:00:57Z</time>
      </trkpt>
      <trkpt lat="42.43903" lon="0.04206">
        <ele>814.5</ele>
        <time>2016-07-31T08:00:59Z</time>
      </trkpt>
      <trkpt lat="42.43899" lon="0.04203">
        <ele>815</ele>
        <time>2016-07-31T08:01:01Z</time>
      </trkpt>
      <trkpt lat="42.43895" lon="0.042">
        <ele>815</ele>
        <time>2016-07-31T08:01:03Z</time>
      </trkpt>
      <trkpt lat="42.43891" lon="0.04198">
        <ele>815.1</ele>
        <time>2016-07-31T08:01:05Z</time>
      </trkpt>
      <trkpt lat="42.43887" lon="0.04194">
        <ele>815.7</ele>
        <time>2016-07-31T08:01:07Z</time>
      </trkpt>
      <trkpt lat="42.43883" lon="0.04191">
        <ele>816.3</ele>
        <time>2016-07-31T08:01:09Z</time>
      </trkpt>
      <trkpt lat="42.43879" lon="0.04187">
        <ele>816.7</ele>
        <time>2016-07-31T08:01:11Z</time>
      </trkpt>
      <trkpt lat="42.43875" lon="0.04183">
        <ele>817.4</ele>
        <time>2016-07-31T08:01:13Z</time>
      </trkpt>
      <trkpt lat="42.43871" lon="0.04178">
        <ele>818.4</ele>
        <time>2016-07-31T08:01:15Z</time>
      </trkpt>
      <trkpt lat="42.43868" lon="0.04174">
        <ele>819.2</ele>
        <time>2016-07-31T08:01:17Z</time>
      </trkpt>
      <trkpt lat="42.43863" lon="0.0417">
        <ele>819.7</ele>
        <time>2016-07-31T08:01:19Z</time>
      </trkpt>
      <trkpt lat="42.43859" lon="0.04167">
        <ele>819.9</ele>
        <time>2016-07-31T08:01:21Z</time>
      </trkpt>
      <trkpt lat="42.43854" lon="0.04164">
        <ele>819.7</ele>
        <time>2016-07-31T08:01:23Z</time>
      </trkpt>
      <trkpt lat="42.43849" lon="0.04162">
        <ele>819.4</ele>
        <time>2016-07-31T08:01:25Z</time>
      </trkpt>
      <trkpt lat="42.43844" lon="0.0416">
        <ele>818.9</ele>
        <time>2016-07-31T08:01:27Z</time>
      </trkpt>
      <trkpt lat="42.4384" lon="0.04159">
        <ele>818.3</ele>
        <time>2016-07-31T08:01:29Z</time>
      </trkpt>
      <trkpt lat="42.43835" lon="0.04157">
        <ele>817.9</ele>
        <time>2016-07-31T08:01:31Z</time>
      </trkpt>
      <trkpt lat="42.43831" lon="0.04155">
        <ele>817.5</ele>
        <time>2016-07-31T08:01:33Z</time>
      </trkpt>
      <trkpt lat="42.43827" lon="0.04152">
        <ele>817.4</ele>
        <time>2016-07-31T08:01:35Z</time>
      </trkpt>
      <trkpt lat="42.43822" lon="0.04149">
        <ele>816.9</ele>
        <time>2016-07-31T08:01:37Z</time>
      </trkpt>
      <trkpt lat="42.43817" lon="0.04147">
        <ele>816.3</ele>
        <time>2016-07-31T08:01:39Z</time>
      </trkpt>
      <trkpt lat="42.43813" lon="0.04145">
        <ele>815.8</ele>
        <time>2016-07-31T08:01:41Z</time>
      </trkpt>
      <trkpt lat="42.43809" lon="0.04141">
        <ele>815.6</ele>
        <time>2016-07-31T08:01:43Z</time>
      </trkpt>
      <trkpt lat="42.43805" lon="0.04136">
        <ele>816.2</ele>
        <time>2016-07-31T08:01:45Z</time>
      </trkpt>
      <trkpt lat="42.43802" lon="0.0413">
        <ele>816.9</ele>
        <time>2016-07-31T08:01:47Z</time>
      </trkpt>
      <trkpt lat="42.438" lon="0.04124">
        <ele>817.6</ele>
        <time>2016-07-31T08:01:49Z</time>
      </trkpt>
      <trkpt lat="42.43798" lon="0.04121">
        <ele>818</ele>
        <time>2016-07-31T08:01:50Z</time>
      </trkpt>
      <trkpt lat="42.43795" lon="0.04115">
        <ele>818.6</ele>
        <time>2016-07-31T08:01:52Z</time>
      </trkpt>
      <trkpt lat="42.43793" lon="0.04109">
        <ele>819.4</ele>
        <time>2016-07-31T08:01:54Z</time>
      </trkpt>
      <trkpt lat="42.4379" lon="0.04103">
        <ele>820.3</ele>
        <time>2016-07-31T08:01:56Z</time>
      </trkpt>
      <trkpt lat="42.43786" lon="0.04098">
        <ele>821.1</ele>
        <time>2016-07-31T08:01:58Z</time>
      </trkpt>
      <trkpt lat="42.43783" lon="0.04093">
        <ele>821.7</ele>
        <time>2016-07-31T08:02:00Z</time>
      </trkpt>
      <trkpt lat="42.43779" lon="0.04088">
        <ele>822.3</ele>
        <time>2016-07-31T08:02:02Z</time>
      </trkpt>
      <trkpt lat="42.43777" lon="0.04086">
        <ele>822.5</ele>
        <time>2016-07-31T08:02:03Z</time>
      </trkpt>
      <trkpt lat="42.43773" lon="0.04082">
        <ele>822.6</ele>
        <time>2016-07-31T08:02:05Z</time>
      </trkpt>
      <trkpt lat="42.43769" lon="0.04078">
        <ele>822.7</ele>
        <time>2016-07-31T08:02:07Z</time>
      </trkpt>
      <trkpt lat="42.43766" lon="0.04075">
        <ele>822.8</ele>
        <time>2016-07-31T08:02:08Z</time>
      </trkpt>
      <trkpt lat="42.43764" lon="0.04073">
        <ele>822.9</ele>
        <time>2016-07-31T08:02:09Z</time>
      </trkpt>
      <trkpt lat="42.43762" lon="0.04071">
        <ele>822.9</ele>
        <time>2016-07-31T08:02:10Z</time>
      </trkpt>
      <trkpt lat="42.43757" lon="0.04067">
        <ele>822.9</ele>
        <time>2016-07-31T08:02:12Z</time>
      </trkpt>
      <trkpt lat="42.43754" lon="0.04064">
        <ele>823</ele>
        <time>2016-07-31T08:02:14Z</time>
      </trkpt>
      <trkpt lat="42.4375" lon="0.0406">
        <ele>823</ele>
        <time>2016-07-31T08:02:16Z</time>
      </trkpt>
      <trkpt lat="42.43746" lon="0.04058">
        <ele>822.8</ele>
        <time>2016-07-31T08:02:18Z</time>
      </trkpt>
      <trkpt lat="42.43742" lon="0.04054">
        <ele>822.7</ele>
        <time>2016-07-31T08:02:20Z</time>
      </trkpt>
      <trkpt lat="42.43738" lon="0.0405">
        <ele>822.9</ele>
        <time>2016-07-31T08:02:22Z</time>
      </trkpt>
      <trkpt lat="42.43735" lon="0.04046">
        <ele>823</ele>
        <time>2016-07-31T08:02:24Z</time>
      </trkpt>
      <trkpt lat="42.43732" lon="0.04042">
        <ele>823.3</ele>
        <time>2016-07-31T08:02:26Z</time>
      </trkpt>
      <trkpt lat="42.43729" lon="0.04037">
        <ele>823.8</ele>
        <time>2016-07-31T08:02:28Z</time>
      </trkpt>
      <trkpt lat="42.43726" lon="0.04031">
        <ele>824.4</ele>
        <time>2016-07-31T08:02:30Z</time>
      </trkpt>
      <trkpt lat="42.43723" lon="0.04025">
        <ele>825.1</ele>
        <time>2016-07-31T08:02:32Z</time>
      </trkpt>
      <trkpt lat="42.43721" lon="0.0402">
        <ele>825.9</ele>
        <time>2016-07-31T08:02:34Z</time>
      </trkpt>
      <trkpt lat="42.43719" lon="0.04014">
        <ele>826.8</ele>
        <time>2016-07-31T08:02:36Z</time>
      </trkpt>
      <trkpt lat="42.43717" lon="0.04008">
        <ele>827.6</ele>
        <time>2016-07-31T08:02:38Z</time>
      </trkpt>
      <trkpt lat="42.43714" lon="0.04003">
        <ele>828.4</ele>
        <time>2016-07-31T08:02:40Z</time>
      </trkpt>
      <trkpt lat="42.43711" lon="0.03998">
        <ele>829</ele>
        <time>2016-07-31T08:02:42Z</time>
      </trkpt>
      <trkpt lat="42.43707" lon="0.03993">
        <ele>829.4</ele>
        <time>2016-07-31T08:02:44Z</time>
      </trkpt>
      <trkpt lat="42.43704" lon="0.03989">
        <ele>829.5</ele>
        <time>2016-07-31T08:02:46Z</time>
      </trkpt>
      <trkpt lat="42.437" lon="0.03984">
        <ele>829.5</ele>
        <time>2016-07-31T08:02:48Z</time>
      </trkpt>
      <trkpt lat="42.43696" lon="0.0398">
        <ele>829.4</ele>
        <time>2016-07-31T08:02:50Z</time>
      </trkpt>
      <trkpt lat="42.43692" lon="0.03977">
        <ele>829</ele>
        <time>2016-07-31T08:02:52Z</time>
      </trkpt>
      <trkpt lat="42.43688" lon="0.03973">
        <ele>828.5</ele>
        <time>2016-07-31T08:02:54Z</time>
      </trkpt>
      <trkpt lat="42.43684" lon="0.0397">
        <ele>828.2</ele>
        <time>2016-07-31T08:02:56Z</time>
      </trkpt>
      <trkpt lat="42.4368" lon="0.03966">
        <ele>827.5</ele>
        <time>2016-07-31T08:02:58Z</time>
      </trkpt>
      <trkpt lat="42.43678" lon="0.03964">
        <ele>827.1</ele>
        <time>2016-07-31T08:02:59Z</time>
      </trkpt>
      <trkpt lat="42.43675" lon="0.03963">
        <ele>826.6</ele>
        <time>2016-07-31T08:03:00Z</time>
      </trkpt>
      <trkpt lat="42.43671" lon="0.03959">
        <ele>825.9</ele>
        <time>2016-07-31T08:03:02Z</time>
      </trkpt>
      <trkpt lat="42.43667" lon="0.03957">
        <ele>824.9</ele>
        <time>2016-07-31T08:03:04Z</time>
      </trkpt>
      <trkpt lat="42.43663" lon="0.03953">
        <ele>823.9</ele>
        <time>2016-07-31T08:03:06Z</time>
      </trkpt>
      <trkpt lat="42.4366" lon="0.03949">
        <ele>823.3</ele>
        <time>2016-07-31T08:03:08Z</time>
      </trkpt>
      <trkpt lat="42.43656" lon="0.03944">
        <ele>822.8</ele>
        <time>2016-07-31T08:03:10Z</time>
      </trkpt>
      <trkpt lat="42.43654" lon="0.03938">
        <ele>822.6</ele>
        <time>2016-07-31T08:03:12Z</time>
      </trkpt>
      <trkpt lat="42.43651" lon="0.03932">
        <ele>822.5</ele>
        <time>2016-07-31T08:03:14Z</time>
      </trkpt>
      <trkpt lat="42.43649" lon="0.03925">
        <ele>822.5</ele>
        <time>2016-07-31T08:03:16Z</time>
      </trkpt>
      <trkpt lat="42.43648" lon="0.03919">
        <ele>822.6</ele>
        <time>2016-07-31T08:03:18Z</time>
      </trkpt>
      <trkpt lat="42.43646" lon="0.03913">
        <ele>822.7</ele>
        <time>2016-07-31T08:03:20Z</time>
      </trkpt>
      <trkpt lat="42.43644" lon="0.03907">
        <ele>822.7</ele>
        <time>2016-07-31T08:03:22Z</time>
      </trkpt>
      <trkpt lat="42.43642" lon="0.03901">
        <ele>822.6</ele>
        <time>2016-07-31T08:03:24Z</time>
      </trkpt>
      <trkpt lat="42.43641" lon="0.03895">
        <ele>822.6</ele>
        <time>2016-07-31T08:03:26Z</time>
      </trkpt>
      <trkpt lat="42.43639" lon="0.03889">
        <ele>822.7</ele>
        <time>2016-07-31T08:03:28Z</time>
      </trkpt>
      <trkpt lat="42.43638" lon="0.03884">
        <ele>822.8</ele>
        <time>2016-07-31T08:03:30Z</time>
      </trkpt>
      <trkpt lat="42.43636" lon="0.03878">
        <ele>822.8</ele>
        <time>2016-07-31T08:03:32Z</time>
      </trkpt>
      <trkpt lat="42.43634" lon="0.03872">
        <ele>823.2</ele>
        <time>2016-07-31T08:03:34Z</time>
      </trkpt>
      <trkpt lat="42.43633" lon="0.03867">
        <ele>824</ele>
        <time>2016-07-31T08:03:36Z</time>
      </trkpt>
      <trkpt lat="42.43632" lon="0.03861">
        <ele>825.4</ele>
        <time>2016-07-31T08:03:38Z</time>
      </trkpt>
      <trkpt lat="42.43632" lon="0.03855">
        <ele>827</ele>
        <time>2016-07-31T08:03:40Z</time>
      </trkpt>
      <trkpt lat="42.43631" lon="0.03848">
        <ele>828.7</ele>
        <time>2016-07-31T08:03:42Z</time>
      </trkpt>
      <trkpt lat="42.43632" lon="0.03842">
        <ele>830.5</ele>
        <time>2016-07-31T08:03:44Z</time>
      </trkpt>
      <trkpt lat="42.43632" lon="0.03835">
        <ele>832.6</ele>
        <time>2016-07-31T08:03:46Z</time>
      </trkpt>
      <trkpt lat="42.43633" lon="0.03828">
        <ele>834.7</ele>
        <time>2016-07-31T08:03:48Z</time>
      </trkpt>
      <trkpt lat="42.43633" lon="0.03821">
        <ele>836.7</ele>
        <time>2016-07-31T08:03:50Z</time>
      </trkpt>
      <trkpt lat="42.43632" lon="0.03814">
        <ele>838.2</ele>
        <time>2016-07-31T08:03:52Z</time>
      </trkpt>
      <trkpt lat="42.4363" lon="0.03807">
        <ele>839.3</ele>
        <time>2016-07-31T08:03:54Z</time>
      </trkpt>
      <trkpt lat="42.43628" lon="0.03801">
        <ele>840.4</ele>
        <time>2016-07-31T08:03:56Z</time>
      </trkpt>
      <trkpt lat="42.43625" lon="0.03796">
        <ele>840.9</ele>
        <time>2016-07-31T08:03:58Z</time>
      </trkpt>
      <trkpt lat="42.43622" lon="0.03792">
        <ele>841</ele>
        <time>2016-07-31T08:04:00Z</time>
      </trkpt>
      <trkpt lat="42.43618" lon="0.03787">
        <ele>840.4</ele>
        <time>2016-07-31T08:04:02Z</time>
      </trkpt>
      <trkpt lat="42.43616" lon="0.03784">
        <ele>840.1</ele>
        <time>2016-07-31T08:04:03Z</time>
      </trkpt>
      <trkpt lat="42.43612" lon="0.03779">
        <ele>839.6</ele>
        <time>2016-07-31T08:04:05Z</time>
      </trkpt>
      <trkpt lat="42.43609" lon="0.03775">
        <ele>839.2</ele>
        <time>2016-07-31T08:04:07Z</time>
      </trkpt>
      <trkpt lat="42.43606" lon="0.0377">
        <ele>838.8</ele>
        <time>2016-07-31T08:04:09Z</time>
      </trkpt>
      <trkpt lat="42.43603" lon="0.03765">
        <ele>838.4</ele>
        <time>2016-07-31T08:04:11Z</time>
      </trkpt>
      <trkpt lat="42.43599" lon="0.03761">
        <ele>837.8</ele>
        <time>2016-07-31T08:04:13Z</time>
      </trkpt>
      <trkpt lat="42.43596" lon="0.03756">
        <ele>837.4</ele>
        <time>2016-07-31T08:04:15Z</time>
      </trkpt>
      <trkpt lat="42.43593" lon="0.0375">
        <ele>837</ele>
        <time>2016-07-31T08:04:17Z</time>
      </trkpt>
      <trkpt lat="42.4359" lon="0.03744">
        <ele>836.9</ele>
        <time>2016-07-31T08:04:19Z</time>
      </trkpt>
      <trkpt lat="42.43588" lon="0.03738">
        <ele>837</ele>
        <time>2016-07-31T08:04:21Z</time>
      </trkpt>
      <trkpt lat="42.43586" lon="0.03732">
        <ele>837.1</ele>
        <time>2016-07-31T08:04:23Z</time>
      </trkpt>
      <trkpt lat="42.43584" lon="0.03726">
        <ele>837.1</ele>
        <time>2016-07-31T08:04:25Z</time>
      </trkpt>
      <trkpt lat="42.43581" lon="0.03721">
        <ele>837</ele>
        <time>2016-07-31T08:04:27Z</time>
      </trkpt>
      <trkpt lat="42.43579" lon="0.03715">
        <ele>837</ele>
        <time>2016-07-31T08:04:29Z</time>
      </trkpt>
      <trkpt lat="42.43578" lon="0.03709">
        <ele>837.1</ele>
        <time>2016-07-31T08:04:31Z</time>
      </trkpt>
      <trkpt lat="42.43576" lon="0.03703">
        <ele>837.3</ele>
        <time>2016-07-31T08:04:33Z</time>
      </trkpt>
      <trkpt lat="42.43575" lon="0.03697">
        <ele>837.8</ele>
        <time>2016-07-31T08:04:35Z</time>
      </trkpt>
      <trkpt lat="42.43575" lon="0.0369">
        <ele>838.6</ele>
        <time>2016-07-31T08:04:37Z</time>
      </trkpt>
      <trkpt lat="42.43576" lon="0.03684">
        <ele>839.6</ele>
        <time>2016-07-31T08:04:39Z</time>
      </trkpt>
      <trkpt lat="42.43577" lon="0.03678">
        <ele>840.6</ele>
        <time>2016-07-31T08:04:41Z</time>
      </trkpt>
      <trkpt lat="42.4358" lon="0.03672">
        <ele>841.9</ele>
        <time>2016-07-31T08:04:43Z</time>
      </trkpt>
      <trkpt lat="42.43583" lon="0.03667">
        <ele>843.3</ele>
        <time>2016-07-31T08:04:45Z</time>
      </trkpt>
      <trkpt lat="42.43585" lon="0.03661">
        <ele>844.5</ele>
        <time>2016-07-31T08:04:47Z</time>
      </trkpt>
      <trkpt lat="42.43587" lon="0.03656">
        <ele>845.7</ele>
        <time>2016-07-31T08:04:49Z</time>
      </trkpt>
      <trkpt lat="42.4359" lon="0.0365">
        <ele>846.8</ele>
        <time>2016-07-31T08:04:51Z</time>
      </trkpt>
      <trkpt lat="42.43592" lon="0.03645">
        <ele>847.9</ele>
        <time>2016-07-31T08:04:53Z</time>
      </trkpt>
      <trkpt lat="42.43594" lon="0.03639">
        <ele>848.9</ele>
        <time>2016-07-31T08:04:55Z</time>
      </trkpt>
      <trkpt lat="42.43595" lon="0.03634">
        <ele>849.8</ele>
        <time>2016-07-31T08:04:57Z</time>
      </trkpt>
      <trkpt lat="42.43597" lon="0.03628">
        <ele>850.6</ele>
        <time>2016-07-31T08:04:59Z</time>
      </trkpt>
      <trkpt lat="42.43597" lon="0.03622">
        <ele>851.6</ele>
        <time>2016-07-31T08:05:01Z</time>
      </trkpt>
      <trkpt lat="42.43597" lon="0.03616">
        <ele>852.8</ele>
        <time>2016-07-31T08:05:03Z</time>
      </trkpt>
      <trkpt lat="42.43596" lon="0.0361">
        <ele>853.7</ele>
        <time>2016-07-31T08:05:05Z</time>
      </trkpt>
      <trkpt lat="42.43595" lon="0.03603">
        <ele>854.6</ele>
        <time>2016-07-31T08:05:07Z</time>
      </trkpt>
      <trkpt lat="42.43593" lon="0.03597">
        <ele>855.4</ele>
        <time>2016-07-31T08:05:09Z</time>
      </trkpt>
      <trkpt lat="42.43591" lon="0.03591">
        <ele>856</ele>
        <time>2016-07-31T08:05:11Z</time>
      </trkpt>
      <trkpt lat="42.43589" lon="0.03585">
        <ele>856.5</ele>
        <time>2016-07-31T08:05:13Z</time>
      </trkpt>
      <trkpt lat="42.43585" lon="0.0358">
        <ele>856.7</ele>
        <time>2016-07-31T08:05:15Z</time>
      </trkpt>
      <trkpt lat="42.43583" lon="0.03578">
        <ele>856.6</ele>
        <time>2016-07-31T08:05:16Z</time>
      </trkpt>
      <trkpt lat="42.4358" lon="0.03575">
        <ele>856.6</ele>
        <time>2016-07-31T08:05:17Z</time>
      </trkpt>
      <trkpt lat="42.43578" lon="0.03573">
        <ele>856.5</ele>
        <time>2016-07-31T08:05:18Z</time>
      </trkpt>
      <trkpt lat="42.43576" lon="0.03571">
        <ele>856.4</ele>
        <time>2016-07-31T08:05:19Z</time>
      </trkpt>
      <trkpt lat="42.43573" lon="0.03569">
        <ele>856.2</ele>
        <time>2016-07-31T08:05:20Z</time>
      </trkpt>
      <trkpt lat="42.43571" lon="0.03567">
        <ele>856</ele>
        <time>2016-07-31T08:05:21Z</time>
      </trkpt>
      <trkpt lat="42.43568" lon="0.03566">
        <ele>855.7</ele>
        <time>2016-07-31T08:05:22Z</time>
      </trkpt>
      <trkpt lat="42.43566" lon="0.03564">
        <ele>855.4</ele>
        <time>2016-07-31T08:05:23Z</time>
      </trkpt>
      <trkpt lat="42.43564" lon="0.03562">
        <ele>855.3</ele>
        <time>2016-07-31T08:05:24Z</time>
      </trkpt>
      <trkpt lat="42.43559" lon="0.03558">
        <ele>854.9</ele>
        <time>2016-07-31T08:05:26Z</time>
      </trkpt>
      <trkpt lat="42.43554" lon="0.03554">
        <ele>854.6</ele>
        <time>2016-07-31T08:05:28Z</time>
      </trkpt>
      <trkpt lat="42.4355" lon="0.03551">
        <ele>854.3</ele>
        <time>2016-07-31T08:05:30Z</time>
      </trkpt>
      <trkpt lat="42.43546" lon="0.03546">
        <ele>854.1</ele>
        <time>2016-07-31T08:05:32Z</time>
      </trkpt>
      <trkpt lat="42.43544" lon="0.03544">
        <ele>854</ele>
        <time>2016-07-31T08:05:33Z</time>
      </trkpt>
      <trkpt lat="42.43542" lon="0.03542">
        <ele>854</ele>
        <time>2016-07-31T08:05:34Z</time>
      </trkpt>
      <trkpt lat="42.4354" lon="0.03539">
        <ele>854.4</ele>
        <time>2016-07-31T08:05:35Z</time>
      </trkpt>
      <trkpt lat="42.43538" lon="0.03537">
        <ele>854.7</ele>
        <time>2016-07-31T08:05:36Z</time>
      </trkpt>
      <trkpt lat="42.43535" lon="0.03534">
        <ele>855</ele>
        <time>2016-07-31T08:05:37Z</time>
      </trkpt>
      <trkpt lat="42.43534" lon="0.03531">
        <ele>855.4</ele>
        <time>2016-07-31T08:05:38Z</time>
      </trkpt>
      <trkpt lat="42.43531" lon="0.03526">
        <ele>856.1</ele>
        <time>2016-07-31T08:05:40Z</time>
      </trkpt>
      <trkpt lat="42.43529" lon="0.03522">
        <ele>856.5</ele>
        <time>2016-07-31T08:05:41Z</time>
      </trkpt>
      <trkpt lat="42.43528" lon="0.03519">
        <ele>856.9</ele>
        <time>2016-07-31T08:05:42Z</time>
      </trkpt>
      <trkpt lat="42.43527" lon="0.03515">
        <ele>857.3</ele>
        <time>2016-07-31T08:05:43Z</time>
      </trkpt>
      <trkpt lat="42.43525" lon="0.03512">
        <ele>857.7</ele>
        <time>2016-07-31T08:05:44Z</time>
      </trkpt>
      <trkpt lat="42.43524" lon="0.03508">
        <ele>858.1</ele>
        <time>2016-07-31T08:05:45Z</time>
      </trkpt>
      <trkpt lat="42.43523" lon="0.03504">
        <ele>858.5</ele>
        <time>2016-07-31T08:05:46Z</time>
      </trkpt>
      <trkpt lat="42.43521" lon="0.035">
        <ele>858.8</ele>
        <time>2016-07-31T08:05:47Z</time>
      </trkpt>
      <trkpt lat="42.4352" lon="0.03496">
        <ele>859.1</ele>
        <time>2016-07-31T08:05:48Z</time>
      </trkpt>
      <trkpt lat="42.43519" lon="0.03493">
        <ele>859.4</ele>
        <time>2016-07-31T08:05:49Z</time>
      </trkpt>
      <trkpt lat="42.43518" lon="0.03489">
        <ele>859.7</ele>
        <time>2016-07-31T08:05:50Z</time>
      </trkpt>
      <trkpt lat="42.43516" lon="0.03486">
        <ele>859.9</ele>
        <time>2016-07-31T08:05:51Z</time>
      </trkpt>
      <trkpt lat="42.43515" lon="0.03483">
        <ele>860.1</ele>
        <time>2016-07-31T08:05:52Z</time>
      </trkpt>
      <trkpt lat="42.43513" lon="0.03476">
        <ele>860.3</ele>
        <time>2016-07-31T08:05:54Z</time>
      </trkpt>
      <trkpt lat="42.43511" lon="0.03473">
        <ele>860.4</ele>
        <time>2016-07-31T08:05:55Z</time>
      </trkpt>
      <trkpt lat="42.43509" lon="0.0347">
        <ele>860.4</ele>
        <time>2016-07-31T08:05:56Z</time>
      </trkpt>
      <trkpt lat="42.43508" lon="0.03467">
        <ele>860.4</ele>
        <time>2016-07-31T08:05:57Z</time>
      </trkpt>
      <trkpt lat="42.43506" lon="0.03463">
        <ele>860.4</ele>
        <time>2016-07-31T08:05:58Z</time>
      </trkpt>
      <trkpt lat="42.43505" lon="0.0346">
        <ele>860.4</ele>
        <time>2016-07-31T08:05:59Z</time>
      </trkpt>
      <trkpt lat="42.43504" lon="0.03456">
        <ele>860.5</ele>
        <time>2016-07-31T08:06:00Z</time>
      </trkpt>
      <trkpt lat="42.43503" lon="0.03453">
        <ele>860.6</ele>
        <time>2016-07-31T08:06:01Z</time>
      </trkpt>
      <trkpt lat="42.43502" lon="0.03449">
        <ele>860.7</ele>
        <time>2016-07-31T08:06:02Z</time>
      </trkpt>
      <trkpt lat="42.43501" lon="0.03446">
        <ele>860.7</ele>
        <time>2016-07-31T08:06:03Z</time>
      </trkpt>
      <trkpt lat="42.435" lon="0.03442">
        <ele>860.9</ele>
        <time>2016-07-31T08:06:04Z</time>
      </trkpt>
      <trkpt lat="42.43499" lon="0.03438">
        <ele>861</ele>
        <time>2016-07-31T08:06:05Z</time>
      </trkpt>
      <trkpt lat="42.43498" lon="0.03435">
        <ele>861</ele>
        <time>2016-07-31T08:06:06Z</time>
      </trkpt>
      <trkpt lat="42.43497" lon="0.03431">
        <ele>860.9</ele>
        <time>2016-07-31T08:06:07Z</time>
      </trkpt>
      <trkpt lat="42.43496" lon="0.03428">
        <ele>860.9</ele>
        <time>2016-07-31T08:06:08Z</time>
      </trkpt>
      <trkpt lat="42.43495" lon="0.03424">
        <ele>860.9</ele>
        <time>2016-07-31T08:06:09Z</time>
      </trkpt>
      <trkpt lat="42.43494" lon="0.0342">
        <ele>860.9</ele>
        <time>2016-07-31T08:06:10Z</time>
      </trkpt>
      <trkpt lat="42.43493" lon="0.03416">
        <ele>860.9</ele>
        <time>2016-07-31T08:06:11Z</time>
      </trkpt>
      <trkpt lat="42.43492" lon="0.03412">
        <ele>860.9</ele>
        <time>2016-07-31T08:06:12Z</time>
      </trkpt>
      <trkpt lat="42.43491" lon="0.03409">
        <ele>860.9</ele>
        <time>2016-07-31T08:06:13Z</time>
      </trkpt>
      <trkpt lat="42.4349" lon="0.03405">
        <ele>860.8</ele>
        <time>2016-07-31T08:06:14Z</time>
      </trkpt>
      <trkpt lat="42.43489" lon="0.03402">
        <ele>860.7</ele>
        <time>2016-07-31T08:06:15Z</time>
      </trkpt>
      <trkpt lat="42.43487" lon="0.03395">
        <ele>860.7</ele>
        <time>2016-07-31T08:06:17Z</time>
      </trkpt>
      <trkpt lat="42.43486" lon="0.03391">
        <ele>860.6</ele>
        <time>2016-07-31T08:06:18Z</time>
      </trkpt>
      <trkpt lat="42.43486" lon="0.03387">
        <ele>860.7</ele>
        <time>2016-07-31T08:06:19Z</time>
      </trkpt>
      <trkpt lat="42.43485" lon="0.03384">
        <ele>860.7</ele>
        <time>2016-07-31T08:06:20Z</time>
      </trkpt>
      <trkpt lat="42.43484" lon="0.0338">
        <ele>860.5</ele>
        <time>2016-07-31T08:06:21Z</time>
      </trkpt>
      <trkpt lat="42.43483" lon="0.03377">
        <ele>860.5</ele>
        <time>2016-07-31T08:06:22Z</time>
      </trkpt>
      <trkpt lat="42.43483" lon="0.03373">
        <ele>860.6</ele>
        <time>2016-07-31T08:06:23Z</time>
      </trkpt>
      <trkpt lat="42.43482" lon="0.03369">
        <ele>860.7</ele>
        <time>2016-07-31T08:06:24Z</time>
      </trkpt>
      <trkpt lat="42.43482" lon="0.03365">
        <ele>861</ele>
        <time>2016-07-31T08:06:25Z</time>
      </trkpt>
      <trkpt lat="42.43482" lon="0.03362">
        <ele>861.2</ele>
        <time>2016-07-31T08:06:26Z</time>
      </trkpt>
      <trkpt lat="42.43482" lon="0.03355">
        <ele>861.5</ele>
        <time>2016-07-31T08:06:28Z</time>
      </trkpt>
      <trkpt lat="42.43481" lon="0.03351">
        <ele>861.5</ele>
        <time>2016-07-31T08:06:29Z</time>
      </trkpt>
      <trkpt lat="42.4348" lon="0.03347">
        <ele>861.5</ele>
        <time>2016-07-31T08:06:30Z</time>
      </trkpt>
      <trkpt lat="42.4348" lon="0.03343">
        <ele>861.6</ele>
        <time>2016-07-31T08:06:31Z</time>
      </trkpt>
      <trkpt lat="42.4348" lon="0.0334">
        <ele>861.8</ele>
        <time>2016-07-31T08:06:32Z</time>
      </trkpt>
      <trkpt lat="42.43479" lon="0.03333">
        <ele>862.1</ele>
        <time>2016-07-31T08:06:34Z</time>
      </trkpt>
      <trkpt lat="42.43479" lon="0.03326">
        <ele>862.5</ele>
        <time>2016-07-31T08:06:36Z</time>
      </trkpt>
      <trkpt lat="42.43479" lon="0.03322">
        <ele>862.9</ele>
        <time>2016-07-31T08:06:37Z</time>
      </trkpt>
      <trkpt lat="42.4348" lon="0.03318">
        <ele>863.3</ele>
        <time>2016-07-31T08:06:38Z</time>
      </trkpt>
      <trkpt lat="42.43481" lon="0.03312">
        <ele>864.2</ele>
        <time>2016-07-31T08:06:40Z</time>
      </trkpt>
      <trkpt lat="42.43482" lon="0.03306">
        <ele>865</ele>
        <time>2016-07-31T08:06:42Z</time>
      </trkpt>
      <trkpt lat="42.43484" lon="0.033">
        <ele>866.2</ele>
        <time>2016-07-31T08:06:44Z</time>
      </trkpt>
      <trkpt lat="42.43487" lon="0.03293">
        <ele>867.6</ele>
        <time>2016-07-31T08:06:46Z</time>
      </trkpt>
      <trkpt lat="42.43489" lon="0.0329">
        <ele>868.5</ele>
        <time>2016-07-31T08:06:47Z</time>
      </trkpt>
      <trkpt lat="42.43492" lon="0.03285">
        <ele>870.2</ele>
        <time>2016-07-31T08:06:49Z</time>
      </trkpt>
      <trkpt lat="42.43494" lon="0.0328">
        <ele>871.9</ele>
        <time>2016-07-31T08:06:51Z</time>
      </trkpt>
      <trkpt lat="42.43497" lon="0.03275">
        <ele>873.8</ele>
        <time>2016-07-31T08:06:53Z</time>
      </trkpt>
      <trkpt lat="42.435" lon="0.0327">
        <ele>875.6</ele>
        <time>2016-07-31T08:06:55Z</time>
      </trkpt>
      <trkpt lat="42.43502" lon="0.03265">
        <ele>877.3</ele>
        <time>2016-07-31T08:06:57Z</time>
      </trkpt>
      <trkpt lat="42.43505" lon="0.0326">
        <ele>879.1</ele>
        <time>2016-07-31T08:06:59Z</time>
      </trkpt>
      <trkpt lat="42.43508" lon="0.03255">
        <ele>880.9</ele>
        <time>2016-07-31T08:07:01Z</time>
      </trkpt>
      <trkpt lat="42.4351" lon="0.03249">
        <ele>882.8</ele>
        <time>2016-07-31T08:07:03Z</time>
      </trkpt>
      <trkpt lat="42.43512" lon="0.03243">
        <ele>884.3</ele>
        <time>2016-07-31T08:07:05Z</time>
      </trkpt>
      <trkpt lat="42.43513" lon="0.03237">
        <ele>885.6</ele>
        <time>2016-07-31T08:07:07Z</time>
      </trkpt>
      <trkpt lat="42.43513" lon="0.03231">
        <ele>886.6</ele>
        <time>2016-07-31T08:07:09Z</time>
      </trkpt>
      <trkpt lat="42.43512" lon="0.03225">
        <ele>887.4</ele>
        <time>2016-07-31T08:07:11Z</time>
      </trkpt>
      <trkpt lat="42.4351" lon="0.03218">
        <ele>888</ele>
        <time>2016-07-31T08:07:13Z</time>
      </trkpt>
      <trkpt lat="42.43507" lon="0.03212">
        <ele>887.9</ele>
        <time>2016-07-31T08:07:15Z</time>
      </trkpt>
      <trkpt lat="42.43504" lon="0.03207">
        <ele>887.9</ele>
        <time>2016-07-31T08:07:17Z</time>
      </trkpt>
      <trkpt lat="42.435" lon="0.03203">
        <ele>887.6</ele>
        <time>2016-07-31T08:07:19Z</time>
      </trkpt>
      <trkpt lat="42.43496" lon="0.03199">
        <ele>886.9</ele>
        <time>2016-07-31T08:07:21Z</time>
      </trkpt>
      <trkpt lat="42.43492" lon="0.03196">
        <ele>886.1</ele>
        <time>2016-07-31T08:07:23Z</time>
      </trkpt>
      <trkpt lat="42.43487" lon="0.03193">
        <ele>885</ele>
        <time>2016-07-31T08:07:25Z</time>
      </trkpt>
      <trkpt lat="42.43482" lon="0.03191">
        <ele>883.8</ele>
        <time>2016-07-31T08:07:27Z</time>
      </trkpt>
      <trkpt lat="42.43477" lon="0.03189">
        <ele>882.4</ele>
        <time>2016-07-31T08:07:29Z</time>
      </trkpt>
      <trkpt lat="42.43475" lon="0.03188">
        <ele>881.8</ele>
        <time>2016-07-31T08:07:30Z</time>
      </trkpt>
      <trkpt lat="42.4347" lon="0.03184">
        <ele>880.8</ele>
        <time>2016-07-31T08:07:32Z</time>
      </trkpt>
      <trkpt lat="42.43465" lon="0.03182">
        <ele>879.6</ele>
        <time>2016-07-31T08:07:34Z</time>
      </trkpt>
      <trkpt lat="42.4346" lon="0.0318">
        <ele>878.3</ele>
        <time>2016-07-31T08:07:36Z</time>
      </trkpt>
      <trkpt lat="42.43456" lon="0.03176">
        <ele>878.2</ele>
        <time>2016-07-31T08:07:38Z</time>
      </trkpt>
      <trkpt lat="42.43452" lon="0.03172">
        <ele>878.8</ele>
        <time>2016-07-31T08:07:40Z</time>
      </trkpt>
      <trkpt lat="42.43449" lon="0.03168">
        <ele>879.4</ele>
        <time>2016-07-31T08:07:42Z</time>
      </trkpt>
      <trkpt lat="42.43446" lon="0.03163">
        <ele>880.1</ele>
        <time>2016-07-31T08:07:44Z</time>
      </trkpt>
      <trkpt lat="42.43443" lon="0.03158">
        <ele>880.8</ele>
        <time>2016-07-31T08:07:46Z</time>
      </trkpt>
      <trkpt lat="42.43441" lon="0.03152">
        <ele>881.5</ele>
        <time>2016-07-31T08:07:48Z</time>
      </trkpt>
      <trkpt lat="42.4344" lon="0.03145">
        <ele>882.4</ele>
        <time>2016-07-31T08:07:50Z</time>
      </trkpt>
      <trkpt lat="42.43439" lon="0.03139">
        <ele>883.3</ele>
        <time>2016-07-31T08:07:52Z</time>
      </trkpt>
      <trkpt lat="42.43439" lon="0.03132">
        <ele>884.4</ele>
        <time>2016-07-31T08:07:54Z</time>
      </trkpt>
      <trkpt lat="42.43439" lon="0.03129">
        <ele>885</ele>
        <time>2016-07-31T08:07:55Z</time>
      </trkpt>
      <trkpt lat="42.4344" lon="0.03122">
        <ele>886.3</ele>
        <time>2016-07-31T08:07:57Z</time>
      </trkpt>
      <trkpt lat="42.43439" lon="0.03115">
        <ele>887.6</ele>
        <time>2016-07-31T08:07:59Z</time>
      </trkpt>
      <trkpt lat="42.43438" lon="0.03109">
        <ele>888.7</ele>
        <time>2016-07-31T08:08:01Z</time>
      </trkpt>
      <trkpt lat="42.43436" lon="0.03103">
        <ele>889.4</ele>
        <time>2016-07-31T08:08:03Z</time>
      </trkpt>
      <trkpt lat="42.43434" lon="0.03097">
        <ele>889.8</ele>
        <time>2016-07-31T08:08:05Z</time>
      </trkpt>
      <trkpt lat="42.43431" lon="0.03092">
        <ele>889.9</ele>
        <time>2016-07-31T08:08:07Z</time>
      </trkpt>
      <trkpt lat="42.43428" lon="0.03087">
        <ele>890</ele>
        <time>2016-07-31T08:08:09Z</time>
      </trkpt>
      <trkpt lat="42.43425" lon="0.03082">
        <ele>890</ele>
        <time>2016-07-31T08:08:11Z</time>
      </trkpt>
      <trkpt lat="42.43423" lon="0.03076">
        <ele>890.1</ele>
        <time>2016-07-31T08:08:13Z</time>
      </trkpt>
      <trkpt lat="42.43421" lon="0.03071">
        <ele>890.2</ele>
        <time>2016-07-31T08:08:15Z</time>
      </trkpt>
      <trkpt lat="42.43419" lon="0.03066">
        <ele>890.3</ele>
        <time>2016-07-31T08:08:17Z</time>
      </trkpt>
      <trkpt lat="42.43417" lon="0.03061">
        <ele>890.3</ele>
        <time>2016-07-31T08:08:19Z</time>
      </trkpt>
      <trkpt lat="42.43415" lon="0.03055">
        <ele>890.3</ele>
        <time>2016-07-31T08:08:21Z</time>
      </trkpt>
      <trkpt lat="42.43413" lon="0.03049">
        <ele>890.2</ele>
        <time>2016-07-31T08:08:23Z</time>
      </trkpt>
      <trkpt lat="42.43411" lon="0.03044">
        <ele>890</ele>
        <time>2016-07-31T08:08:25Z</time>
      </trkpt>
      <trkpt lat="42.43409" lon="0.03038">
        <ele>890.2</ele>
        <time>2016-07-31T08:08:27Z</time>
      </trkpt>
      <trkpt lat="42.43406" lon="0.03032">
        <ele>890.3</ele>
        <time>2016-07-31T08:08:29Z</time>
      </trkpt>
      <trkpt lat="42.43404" lon="0.03026">
        <ele>890.2</ele>
        <time>2016-07-31T08:08:31Z</time>
      </trkpt>
      <trkpt lat="42.43402" lon="0.03022">
        <ele>889.9</ele>
        <time>2016-07-31T08:08:33Z</time>
      </trkpt>
      <trkpt lat="42.434" lon="0.03017">
        <ele>889.9</ele>
        <time>2016-07-31T08:08:35Z</time>
      </trkpt>
      <trkpt lat="42.43398" lon="0.03011">
        <ele>890</ele>
        <time>2016-07-31T08:08:37Z</time>
      </trkpt>
      <trkpt lat="42.43396" lon="0.03006">
        <ele>889.9</ele>
        <time>2016-07-31T08:08:39Z</time>
      </trkpt>
      <trkpt lat="42.43393" lon="0.03001">
        <ele>889.5</ele>
        <time>2016-07-31T08:08:41Z</time>
      </trkpt>
      <trkpt lat="42.43391" lon="0.02997">
        <ele>889</ele>
        <time>2016-07-31T08:08:43Z</time>
      </trkpt>
      <trkpt lat="42.43387" lon="0.02993">
        <ele>888</ele>
        <time>2016-07-31T08:08:45Z</time>
      </trkpt>
      <trkpt lat="42.43385" lon="0.02988">
        <ele>887.4</ele>
        <time>2016-07-31T08:08:47Z</time>
      </trkpt>
      <trkpt lat="42.43383" lon="0.02982">
        <ele>887.6</ele>
        <time>2016-07-31T08:08:49Z</time>
      </trkpt>
      <trkpt lat="42.43381" lon="0.02976">
        <ele>887.8</ele>
        <time>2016-07-31T08:08:51Z</time>
      </trkpt>
      <trkpt lat="42.4338" lon="0.02972">
        <ele>887.6</ele>
        <time>2016-07-31T08:08:52Z</time>
      </trkpt>
      <trkpt lat="42.43379" lon="0.02969">
        <ele>887.5</ele>
        <time>2016-07-31T08:08:53Z</time>
      </trkpt>
      <trkpt lat="42.43378" lon="0.02966">
        <ele>887.3</ele>
        <time>2016-07-31T08:08:54Z</time>
      </trkpt>
      <trkpt lat="42.43376" lon="0.0296">
        <ele>887.1</ele>
        <time>2016-07-31T08:08:56Z</time>
      </trkpt>
      <trkpt lat="42.43374" lon="0.02954">
        <ele>887.6</ele>
        <time>2016-07-31T08:08:58Z</time>
      </trkpt>
      <trkpt lat="42.43373" lon="0.02946">
        <ele>888.6</ele>
        <time>2016-07-31T08:09:00Z</time>
      </trkpt>
      <trkpt lat="42.43373" lon="0.02943">
        <ele>889.2</ele>
        <time>2016-07-31T08:09:01Z</time>
      </trkpt>
      <trkpt lat="42.43373" lon="0.02936">
        <ele>890.3</ele>
        <time>2016-07-31T08:09:03Z</time>
      </trkpt>
      <trkpt lat="42.43373" lon="0.02929">
        <ele>891.4</ele>
        <time>2016-07-31T08:09:05Z</time>
      </trkpt>
      <trkpt lat="42.43373" lon="0.02923">
        <ele>892.6</ele>
        <time>2016-07-31T08:09:07Z</time>
      </trkpt>
      <trkpt lat="42.43373" lon="0.02916">
        <ele>893.8</ele>
        <time>2016-07-31T08:09:09Z</time>
      </trkpt>
      <trkpt lat="42.43374" lon="0.02909">
        <ele>895</ele>
        <time>2016-07-31T08:09:11Z</time>
      </trkpt>
      <trkpt lat="42.43375" lon="0.02902">
        <ele>896.4</ele>
        <time>2016-07-31T08:09:13Z</time>
      </trkpt>
      <trkpt lat="42.43375" lon="0.02898">
        <ele>897.1</ele>
        <time>2016-07-31T08:09:14Z</time>
      </trkpt>
      <trkpt lat="42.43375" lon="0.02891">
        <ele>898.3</ele>
        <time>2016-07-31T08:09:16Z</time>
      </trkpt>
      <trkpt lat="42.43376" lon="0.02884">
        <ele>899.7</ele>
        <time>2016-07-31T08:09:18Z</time>
      </trkpt>
      <trkpt lat="42.43376" lon="0.0288">
        <ele>900.6</ele>
        <time>2016-07-31T08:09:19Z</time>
      </trkpt>
      <trkpt lat="42.43377" lon="0.02873">
        <ele>902.6</ele>
        <time>2016-07-31T08:09:21Z</time>
      </trkpt>
      <trkpt lat="42.43378" lon="0.0287">
        <ele>904.2</ele>
        <time>2016-07-31T08:09:22Z</time>
      </trkpt>
      <trkpt lat="42.43378" lon="0.02866">
        <ele>905.8</ele>
        <time>2016-07-31T08:09:23Z</time>
      </trkpt>
      <trkpt lat="42.43379" lon="0.02862">
        <ele>907.3</ele>
        <time>2016-07-31T08:09:24Z</time>
      </trkpt>
      <trkpt lat="42.43379" lon="0.02859">
        <ele>908.8</ele>
        <time>2016-07-31T08:09:25Z</time>
      </trkpt>
      <trkpt lat="42.4338" lon="0.02855">
        <ele>910.3</ele>
        <time>2016-07-31T08:09:26Z</time>
      </trkpt>
      <trkpt lat="42.4338" lon="0.02851">
        <ele>911.8</ele>
        <time>2016-07-31T08:09:27Z</time>
      </trkpt>
      <trkpt lat="42.43381" lon="0.02847">
        <ele>913.3</ele>
        <time>2016-07-31T08:09:28Z</time>
      </trkpt>
      <trkpt lat="42.43381" lon="0.02843">
        <ele>914.8</ele>
        <time>2016-07-31T08:09:29Z</time>
      </trkpt>
      <trkpt lat="42.43382" lon="0.0284">
        <ele>916.4</ele>
        <time>2016-07-31T08:09:30Z</time>
      </trkpt>
      <trkpt lat="42.43383" lon="0.02836">
        <ele>917.8</ele>
        <time>2016-07-31T08:09:31Z</time>
      </trkpt>
      <trkpt lat="42.43383" lon="0.02832">
        <ele>919.3</ele>
        <time>2016-07-31T08:09:32Z</time>
      </trkpt>
      <trkpt lat="42.43384" lon="0.02829">
        <ele>920.7</ele>
        <time>2016-07-31T08:09:33Z</time>
      </trkpt>
      <trkpt lat="42.43385" lon="0.02825">
        <ele>922.1</ele>
        <time>2016-07-31T08:09:34Z</time>
      </trkpt>
      <trkpt lat="42.43385" lon="0.02821">
        <ele>923.5</ele>
        <time>2016-07-31T08:09:35Z</time>
      </trkpt>
      <trkpt lat="42.43386" lon="0.02818">
        <ele>924.8</ele>
        <time>2016-07-31T08:09:36Z</time>
      </trkpt>
      <trkpt lat="42.43387" lon="0.02814">
        <ele>926.2</ele>
        <time>2016-07-31T08:09:37Z</time>
      </trkpt>
      <trkpt lat="42.43387" lon="0.02811">
        <ele>927.5</ele>
        <time>2016-07-31T08:09:38Z</time>
      </trkpt>
      <trkpt lat="42.43388" lon="0.02807">
        <ele>928.8</ele>
        <time>2016-07-31T08:09:39Z</time>
      </trkpt>
      <trkpt lat="42.4339" lon="0.028">
        <ele>931.2</ele>
        <time>2016-07-31T08:09:41Z</time>
      </trkpt>
      <trkpt lat="42.4339" lon="0.02797">
        <ele>932.4</ele>
        <time>2016-07-31T08:09:42Z</time>
      </trkpt>
      <trkpt lat="42.4339" lon="0.02793">
        <ele>933.7</ele>
        <time>2016-07-31T08:09:43Z</time>
      </trkpt>
      <trkpt lat="42.4339" lon="0.02789">
        <ele>935</ele>
        <time>2016-07-31T08:09:44Z</time>
      </trkpt>
      <trkpt lat="42.4339" lon="0.02782">
        <ele>937.8</ele>
        <time>2016-07-31T08:09:46Z</time>
      </trkpt>
      <trkpt lat="42.43389" lon="0.02778">
        <ele>939.3</ele>
        <time>2016-07-31T08:09:47Z</time>
      </trkpt>
      <trkpt lat="42.43388" lon="0.02774">
        <ele>940.7</ele>
        <time>2016-07-31T08:09:48Z</time>
      </trkpt>
      <trkpt lat="42.43387" lon="0.0277">
        <ele>942.2</ele>
        <time>2016-07-31T08:09:49Z</time>
      </trkpt>
      <trkpt lat="42.43386" lon="0.02767">
        <ele>943.4</ele>
        <time>2016-07-31T08:09:50Z</time>
      </trkpt>
      <trkpt lat="42.43384" lon="0.02764">
        <ele>944.5</ele>
        <time>2016-07-31T08:09:51Z</time>
      </trkpt>
      <trkpt lat="42.43382" lon="0.02762">
        <ele>945.4</ele>
        <time>2016-07-31T08:09:52Z</time>
      </trkpt>
      <trkpt lat="42.4338" lon="0.02759">
        <ele>946.2</ele>
        <time>2016-07-31T08:09:53Z</time>
      </trkpt>
      <trkpt lat="42.43376" lon="0.02755">
        <ele>947.7</ele>
        <time>2016-07-31T08:09:55Z</time>
      </trkpt>
      <trkpt lat="42.43373" lon="0.02754">
        <ele>947.8</ele>
        <time>2016-07-31T08:09:56Z</time>
      </trkpt>
      <trkpt lat="42.4337" lon="0.02753">
        <ele>947.5</ele>
        <time>2016-07-31T08:09:57Z</time>
      </trkpt>
      <trkpt lat="42.43367" lon="0.02752">
        <ele>947.1</ele>
        <time>2016-07-31T08:09:58Z</time>
      </trkpt>
      <trkpt lat="42.43364" lon="0.02752">
        <ele>946.3</ele>
        <time>2016-07-31T08:09:59Z</time>
      </trkpt>
      <trkpt lat="42.43361" lon="0.02752">
        <ele>945.2</ele>
        <time>2016-07-31T08:10:00Z</time>
      </trkpt>
      <trkpt lat="42.43359" lon="0.02753">
        <ele>944.1</ele>
        <time>2016-07-31T08:10:01Z</time>
      </trkpt>
      <trkpt lat="42.43356" lon="0.02754">
        <ele>942.9</ele>
        <time>2016-07-31T08:10:02Z</time>
      </trkpt>
      <trkpt lat="42.43353" lon="0.02754">
        <ele>941.9</ele>
        <time>2016-07-31T08:10:03Z</time>
      </trkpt>
      <trkpt lat="42.4335" lon="0.02754">
        <ele>941</ele>
        <time>2016-07-31T08:10:04Z</time>
      </trkpt>
      <trkpt lat="42.43345" lon="0.02754">
        <ele>939.5</ele>
        <time>2016-07-31T08:10:06Z</time>
      </trkpt>
      <trkpt lat="42.4334" lon="0.02755">
        <ele>937.8</ele>
        <time>2016-07-31T08:10:08Z</time>
      </trkpt>
      <trkpt lat="42.43335" lon="0.02756">
        <ele>936</ele>
        <time>2016-07-31T08:10:10Z</time>
      </trkpt>
      <trkpt lat="42.43331" lon="0.02757">
        <ele>934.5</ele>
        <time>2016-07-31T08:10:12Z</time>
      </trkpt>
      <trkpt lat="42.43326" lon="0.02756">
        <ele>933.6</ele>
        <time>2016-07-31T08:10:14Z</time>
      </trkpt>
      <trkpt lat="42.43323" lon="0.02757">
        <ele>932.2</ele>
        <time>2016-07-31T08:10:16Z</time>
      </trkpt>
      <trkpt lat="42.43318" lon="0.02758">
        <ele>930.3</ele>
        <time>2016-07-31T08:10:18Z</time>
      </trkpt>
      <trkpt lat="42.43313" lon="0.0276">
        <ele>928.1</ele>
        <time>2016-07-31T08:10:20Z</time>
      </trkpt>
      <trkpt lat="42.43308" lon="0.02762">
        <ele>926</ele>
        <time>2016-07-31T08:10:22Z</time>
      </trkpt>
      <trkpt lat="42.43303" lon="0.02764">
        <ele>924</ele>
        <time>2016-07-31T08:10:24Z</time>
      </trkpt>
      <trkpt lat="42.43298" lon="0.02763">
        <ele>922.8</ele>
        <time>2016-07-31T08:10:26Z</time>
      </trkpt>
      <trkpt lat="42.43294" lon="0.02761">
        <ele>922.4</ele>
        <time>2016-07-31T08:10:28Z</time>
      </trkpt>
      <trkpt lat="42.4329" lon="0.02757">
        <ele>922.6</ele>
        <time>2016-07-31T08:10:30Z</time>
      </trkpt>
      <trkpt lat="42.43287" lon="0.02752">
        <ele>923.4</ele>
        <time>2016-07-31T08:10:32Z</time>
      </trkpt>
      <trkpt lat="42.43284" lon="0.02747">
        <ele>924.5</ele>
        <time>2016-07-31T08:10:34Z</time>
      </trkpt>
      <trkpt lat="42.43281" lon="0.02742">
        <ele>925.3</ele>
        <time>2016-07-31T08:10:36Z</time>
      </trkpt>
      <trkpt lat="42.43278" lon="0.02737">
        <ele>926.3</ele>
        <time>2016-07-31T08:10:38Z</time>
      </trkpt>
      <trkpt lat="42.43276" lon="0.02731">
        <ele>927.4</ele>
        <time>2016-07-31T08:10:40Z</time>
      </trkpt>
      <trkpt lat="42.43273" lon="0.02726">
        <ele>928.4</ele>
        <time>2016-07-31T08:10:42Z</time>
      </trkpt>
      <trkpt lat="42.4327" lon="0.02721">
        <ele>929.1</ele>
        <time>2016-07-31T08:10:44Z</time>
      </trkpt>
      <trkpt lat="42.43267" lon="0.02716">
        <ele>929.7</ele>
        <time>2016-07-31T08:10:46Z</time>
      </trkpt>
      <trkpt lat="42.43264" lon="0.02711">
        <ele>930.4</ele>
        <time>2016-07-31T08:10:48Z</time>
      </trkpt>
      <trkpt lat="42.43261" lon="0.02706">
        <ele>931.4</ele>
        <time>2016-07-31T08:10:50Z</time>
      </trkpt>
      <trkpt lat="42.43258" lon="0.02702">
        <ele>932.7</ele>
        <time>2016-07-31T08:10:52Z</time>
      </trkpt>
      <trkpt lat="42.43256" lon="0.02697">
        <ele>933.8</ele>
        <time>2016-07-31T08:10:54Z</time>
      </trkpt>
      <trkpt lat="42.43253" lon="0.02692">
        <ele>935</ele>
        <time>2016-07-31T08:10:56Z</time>
      </trkpt>
      <trkpt lat="42.43251" lon="0.02688">
        <ele>936.3</ele>
        <time>2016-07-31T08:10:58Z</time>
      </trkpt>
      <trkpt lat="42.43248" lon="0.02682">
        <ele>938</ele>
        <time>2016-07-31T08:11:00Z</time>
      </trkpt>
      <trkpt lat="42.43246" lon="0.02677">
        <ele>939.6</ele>
        <time>2016-07-31T08:11:02Z</time>
      </trkpt>
      <trkpt lat="42.43244" lon="0.02672">
        <ele>940.9</ele>
        <time>2016-07-31T08:11:04Z</time>
      </trkpt>
      <trkpt lat="42.43241" lon="0.02668">
        <ele>942.1</ele>
        <time>2016-07-31T08:11:06Z</time>
      </trkpt>
      <trkpt lat="42.43238" lon="0.02663">
        <ele>943.4</ele>
        <time>2016-07-31T08:11:08Z</time>
      </trkpt>
      <trkpt lat="42.43236" lon="0.02658">
        <ele>944.8</ele>
        <time>2016-07-31T08:11:10Z</time>
      </trkpt>
      <trkpt lat="42.43233" lon="0.02653">
        <ele>946.5</ele>
        <time>2016-07-31T08:11:12Z</time>
      </trkpt>
      <trkpt lat="42.4323" lon="0.02648">
        <ele>948</ele>
        <time>2016-07-31T08:11:14Z</time>
      </trkpt>
      <trkpt lat="42.43228" lon="0.02645">
        <ele>948.9</ele>
        <time>2016-07-31T08:11:15Z</time>
      </trkpt>
      <trkpt lat="42.43226" lon="0.02642">
        <ele>949.7</ele>
        <time>2016-07-31T08:11:16Z</time>
      </trkpt>
      <trkpt lat="42.43224" lon="0.02639">
        <ele>950.3</ele>
        <time>2016-07-31T08:11:17Z</time>
      </trkpt>
      <trkpt lat="42.43221" lon="0.02635">
        <ele>951.1</ele>
        <time>2016-07-31T08:11:19Z</time>
      </trkpt>
      <trkpt lat="42.43216" lon="0.02632">
        <ele>951.1</ele>
        <time>2016-07-31T08:11:21Z</time>
      </trkpt>
      <trkpt lat="42.43213" lon="0.0263">
        <ele>951</ele>
        <time>2016-07-31T08:11:22Z</time>
      </trkpt>
      <trkpt lat="42.43211" lon="0.02629">
        <ele>951</ele>
        <time>2016-07-31T08:11:23Z</time>
      </trkpt>
      <trkpt lat="42.43206" lon="0.02626">
        <ele>950.6</ele>
        <time>2016-07-31T08:11:25Z</time>
      </trkpt>
      <trkpt lat="42.43202" lon="0.02623">
        <ele>949.8</ele>
        <time>2016-07-31T08:11:27Z</time>
      </trkpt>
      <trkpt lat="42.43198" lon="0.02619">
        <ele>949.3</ele>
        <time>2016-07-31T08:11:29Z</time>
      </trkpt>
      <trkpt lat="42.43194" lon="0.02615">
        <ele>948.9</ele>
        <time>2016-07-31T08:11:31Z</time>
      </trkpt>
      <trkpt lat="42.4319" lon="0.02612">
        <ele>948.2</ele>
        <time>2016-07-31T08:11:33Z</time>
      </trkpt>
      <trkpt lat="42.43185" lon="0.02609">
        <ele>947</ele>
        <time>2016-07-31T08:11:35Z</time>
      </trkpt>
      <trkpt lat="42.43181" lon="0.02607">
        <ele>945.5</ele>
        <time>2016-07-31T08:11:37Z</time>
      </trkpt>
      <trkpt lat="42.43176" lon="0.02606">
        <ele>944</ele>
        <time>2016-07-31T08:11:39Z</time>
      </trkpt>
      <trkpt lat="42.43172" lon="0.02604">
        <ele>942.8</ele>
        <time>2016-07-31T08:11:41Z</time>
      </trkpt>
      <trkpt lat="42.43168" lon="0.02601">
        <ele>941.8</ele>
        <time>2016-07-31T08:11:43Z</time>
      </trkpt>
      <trkpt lat="42.43165" lon="0.02598">
        <ele>941.6</ele>
        <time>2016-07-31T08:11:45Z</time>
      </trkpt>
      <trkpt lat="42.4316" lon="0.02595">
        <ele>940.7</ele>
        <time>2016-07-31T08:11:47Z</time>
      </trkpt>
      <trkpt lat="42.43156" lon="0.02592">
        <ele>939.9</ele>
        <time>2016-07-31T08:11:49Z</time>
      </trkpt>
      <trkpt lat="42.43152" lon="0.02589">
        <ele>939.2</ele>
        <time>2016-07-31T08:11:51Z</time>
      </trkpt>
      <trkpt lat="42.43147" lon="0.02587">
        <ele>937.8</ele>
        <time>2016-07-31T08:11:53Z</time>
      </trkpt>
      <trkpt lat="42.43143" lon="0.02585">
        <ele>936.3</ele>
        <time>2016-07-31T08:11:55Z</time>
      </trkpt>
      <trkpt lat="42.43138" lon="0.02583">
        <ele>935.2</ele>
        <time>2016-07-31T08:11:57Z</time>
      </trkpt>
      <trkpt lat="42.43136" lon="0.02581">
        <ele>934.6</ele>
        <time>2016-07-31T08:11:58Z</time>
      </trkpt>
      <trkpt lat="42.43133" lon="0.0258">
        <ele>934</ele>
        <time>2016-07-31T08:11:59Z</time>
      </trkpt>
      <trkpt lat="42.43128" lon="0.02577">
        <ele>932.8</ele>
        <time>2016-07-31T08:12:01Z</time>
      </trkpt>
      <trkpt lat="42.43124" lon="0.02574">
        <ele>932.4</ele>
        <time>2016-07-31T08:12:03Z</time>
      </trkpt>
      <trkpt lat="42.43121" lon="0.02572">
        <ele>932.4</ele>
        <time>2016-07-31T08:12:04Z</time>
      </trkpt>
      <trkpt lat="42.43117" lon="0.02569">
        <ele>932.5</ele>
        <time>2016-07-31T08:12:06Z</time>
      </trkpt>
      <trkpt lat="42.43113" lon="0.02564">
        <ele>932.8</ele>
        <time>2016-07-31T08:12:08Z</time>
      </trkpt>
      <trkpt lat="42.4311" lon="0.02562">
        <ele>932.9</ele>
        <time>2016-07-31T08:12:09Z</time>
      </trkpt>
      <trkpt lat="42.43106" lon="0.02557">
        <ele>933.1</ele>
        <time>2016-07-31T08:12:11Z</time>
      </trkpt>
      <trkpt lat="42.43103" lon="0.02552">
        <ele>933.2</ele>
        <time>2016-07-31T08:12:13Z</time>
      </trkpt>
      <trkpt lat="42.43101" lon="0.02549">
        <ele>933.4</ele>
        <time>2016-07-31T08:12:14Z</time>
      </trkpt>
      <trkpt lat="42.43099" lon="0.02546">
        <ele>933.6</ele>
        <time>2016-07-31T08:12:15Z</time>
      </trkpt>
      <trkpt lat="42.43098" lon="0.02543">
        <ele>933.9</ele>
        <time>2016-07-31T08:12:16Z</time>
      </trkpt>
      <trkpt lat="42.43096" lon="0.02539">
        <ele>934</ele>
        <time>2016-07-31T08:12:17Z</time>
      </trkpt>
      <trkpt lat="42.43095" lon="0.02536">
        <ele>934</ele>
        <time>2016-07-31T08:12:18Z</time>
      </trkpt>
      <trkpt lat="42.43093" lon="0.02533">
        <ele>934</ele>
        <time>2016-07-31T08:12:19Z</time>
      </trkpt>
      <trkpt lat="42.43091" lon="0.0253">
        <ele>934</ele>
        <time>2016-07-31T08:12:20Z</time>
      </trkpt>
      <trkpt lat="42.4309" lon="0.02526">
        <ele>934.2</ele>
        <time>2016-07-31T08:12:21Z</time>
      </trkpt>
      <trkpt lat="42.43088" lon="0.02522">
        <ele>934.4</ele>
        <time>2016-07-31T08:12:22Z</time>
      </trkpt>
      <trkpt lat="42.43087" lon="0.02519">
        <ele>934.8</ele>
        <time>2016-07-31T08:12:23Z</time>
      </trkpt>
      <trkpt lat="42.43086" lon="0.02515">
        <ele>935.1</ele>
        <time>2016-07-31T08:12:24Z</time>
      </trkpt>
      <trkpt lat="42.43084" lon="0.02511">
        <ele>935.4</ele>
        <time>2016-07-31T08:12:25Z</time>
      </trkpt>
      <trkpt lat="42.43083" lon="0.02507">
        <ele>935.7</ele>
        <time>2016-07-31T08:12:26Z</time>
      </trkpt>
      <trkpt lat="42.43081" lon="0.02504">
        <ele>935.9</ele>
        <time>2016-07-31T08:12:27Z</time>
      </trkpt>
      <trkpt lat="42.43079" lon="0.025">
        <ele>936.3</ele>
        <time>2016-07-31T08:12:28Z</time>
      </trkpt>
      <trkpt lat="42.43078" lon="0.02496">
        <ele>936.6</ele>
        <time>2016-07-31T08:12:29Z</time>
      </trkpt>
      <trkpt lat="42.43076" lon="0.02492">
        <ele>936.9</ele>
        <time>2016-07-31T08:12:30Z</time>
      </trkpt>
      <trkpt lat="42.43074" lon="0.02489">
        <ele>937.2</ele>
        <time>2016-07-31T08:12:31Z</time>
      </trkpt>
      <trkpt lat="42.43073" lon="0.02485">
        <ele>937.7</ele>
        <time>2016-07-31T08:12:32Z</time>
      </trkpt>
      <trkpt lat="42.43072" lon="0.02481">
        <ele>938.6</ele>
        <time>2016-07-31T08:12:33Z</time>
      </trkpt>
      <trkpt lat="42.43071" lon="0.02476">
        <ele>939.6</ele>
        <time>2016-07-31T08:12:34Z</time>
      </trkpt>
      <trkpt lat="42.43071" lon="0.02472">
        <ele>940.8</ele>
        <time>2016-07-31T08:12:35Z</time>
      </trkpt>
      <trkpt lat="42.43071" lon="0.02467">
        <ele>942.1</ele>
        <time>2016-07-31T08:12:36Z</time>
      </trkpt>
      <trkpt lat="42.43071" lon="0.02462">
        <ele>943.5</ele>
        <time>2016-07-31T08:12:37Z</time>
      </trkpt>
      <trkpt lat="42.43072" lon="0.02458">
        <ele>944.9</ele>
        <time>2016-07-31T08:12:38Z</time>
      </trkpt>
      <trkpt lat="42.43072" lon="0.02453">
        <ele>946.4</ele>
        <time>2016-07-31T08:12:39Z</time>
      </trkpt>
      <trkpt lat="42.43073" lon="0.02448">
        <ele>948.1</ele>
        <time>2016-07-31T08:12:40Z</time>
      </trkpt>
      <trkpt lat="42.43073" lon="0.02443">
        <ele>949.6</ele>
        <time>2016-07-31T08:12:41Z</time>
      </trkpt>
      <trkpt lat="42.43074" lon="0.02438">
        <ele>951.1</ele>
        <time>2016-07-31T08:12:42Z</time>
      </trkpt>
      <trkpt lat="42.43074" lon="0.02434">
        <ele>952.5</ele>
        <time>2016-07-31T08:12:43Z</time>
      </trkpt>
      <trkpt lat="42.43075" lon="0.02429">
        <ele>953.8</ele>
        <time>2016-07-31T08:12:44Z</time>
      </trkpt>
      <trkpt lat="42.43075" lon="0.02424">
        <ele>955.1</ele>
        <time>2016-07-31T08:12:45Z</time>
      </trkpt>
      <trkpt lat="42.43074" lon="0.02419">
        <ele>956.4</ele>
        <time>2016-07-31T08:12:46Z</time>
      </trkpt>
      <trkpt lat="42.43073" lon="0.02414">
        <ele>957.6</ele>
        <time>2016-07-31T08:12:47Z</time>
      </trkpt>
      <trkpt lat="42.43072" lon="0.02409">
        <ele>958.8</ele>
        <time>2016-07-31T08:12:48Z</time>
      </trkpt>
      <trkpt lat="42.43071" lon="0.02404">
        <ele>960</ele>
        <time>2016-07-31T08:12:49Z</time>
      </trkpt>
      <trkpt lat="42.4307" lon="0.02399">
        <ele>961.4</ele>
        <time>2016-07-31T08:12:50Z</time>
      </trkpt>
      <trkpt lat="42.43068" lon="0.02394">
        <ele>962.6</ele>
        <time>2016-07-31T08:12:51Z</time>
      </trkpt>
      <trkpt lat="42.43066" lon="0.02389">
        <ele>963.8</ele>
        <time>2016-07-31T08:12:52Z</time>
      </trkpt>
      <trkpt lat="42.43064" lon="0.02385">
        <ele>965.1</ele>
        <time>2016-07-31T08:12:53Z</time>
      </trkpt>
      <trkpt lat="42.43062" lon="0.0238">
        <ele>966.4</ele>
        <time>2016-07-31T08:12:54Z</time>
      </trkpt>
      <trkpt lat="42.43059" lon="0.02375">
        <ele>967.8</ele>
        <time>2016-07-31T08:12:55Z</time>
      </trkpt>
      <trkpt lat="42.43057" lon="0.02371">
        <ele>969.3</ele>
        <time>2016-07-31T08:12:56Z</time>
      </trkpt>
      <trkpt lat="42.43055" lon="0.02367">
        <ele>970.7</ele>
        <time>2016-07-31T08:12:57Z</time>
      </trkpt>
      <trkpt lat="42.43052" lon="0.02363">
        <ele>971.9</ele>
        <time>2016-07-31T08:12:58Z</time>
      </trkpt>
      <trkpt lat="42.43049" lon="0.02359">
        <ele>973.1</ele>
        <time>2016-07-31T08:12:59Z</time>
      </trkpt>
      <trkpt lat="42.43046" lon="0.02357">
        <ele>974</ele>
        <time>2016-07-31T08:13:00Z</time>
      </trkpt>
      <trkpt lat="42.43042" lon="0.02355">
        <ele>974.6</ele>
        <time>2016-07-31T08:13:01Z</time>
      </trkpt>
      <trkpt lat="42.43038" lon="0.02353">
        <ele>974.4</ele>
        <time>2016-07-31T08:13:02Z</time>
      </trkpt>
      <trkpt lat="42.43034" lon="0.02352">
        <ele>973.9</ele>
        <time>2016-07-31T08:13:03Z</time>
      </trkpt>
      <trkpt lat="42.4303" lon="0.02351">
        <ele>973.3</ele>
        <time>2016-07-31T08:13:04Z</time>
      </trkpt>
      <trkpt lat="42.43024" lon="0.02354">
        <ele>971.4</ele>
        <time>2016-07-31T08:13:05Z</time>
      </trkpt>
      <trkpt lat="42.4302" lon="0.02354">
        <ele>970.3</ele>
        <time>2016-07-31T08:13:06Z</time>
      </trkpt>
      <trkpt lat="42.43016" lon="0.02355">
        <ele>969</ele>
        <time>2016-07-31T08:13:07Z</time>
      </trkpt>
      <trkpt lat="42.43012" lon="0.02352">
        <ele>969</ele>
        <time>2016-07-31T08:13:08Z</time>
      </trkpt>
      <trkpt lat="42.43007" lon="0.02353">
        <ele>968</ele>
        <time>2016-07-31T08:13:09Z</time>
      </trkpt>
      <trkpt lat="42.43003" lon="0.02353">
        <ele>967.2</ele>
        <time>2016-07-31T08:13:10Z</time>
      </trkpt>
      <trkpt lat="42.43" lon="0.02354">
        <ele>966</ele>
        <time>2016-07-31T08:13:11Z</time>
      </trkpt>
      <trkpt lat="42.42996" lon="0.02354">
        <ele>965</ele>
        <time>2016-07-31T08:13:12Z</time>
      </trkpt>
      <trkpt lat="42.42992" lon="0.02353">
        <ele>964.6</ele>
        <time>2016-07-31T08:13:13Z</time>
      </trkpt>
      <trkpt lat="42.42987" lon="0.02354">
        <ele>963.5</ele>
        <time>2016-07-31T08:13:14Z</time>
      </trkpt>
      <trkpt lat="42.42984" lon="0.02354">
        <ele>962.7</ele>
        <time>2016-07-31T08:13:15Z</time>
      </trkpt>
      <trkpt lat="42.4298" lon="0.02353">
        <ele>962.1</ele>
        <time>2016-07-31T08:13:16Z</time>
      </trkpt>
      <trkpt lat="42.42976" lon="0.02352">
        <ele>961.6</ele>
        <time>2016-07-31T08:13:17Z</time>
      </trkpt>
      <trkpt lat="42.42972" lon="0.02351">
        <ele>961.1</ele>
        <time>2016-07-31T08:13:18Z</time>
      </trkpt>
      <trkpt lat="42.42969" lon="0.0235">
        <ele>960.6</ele>
        <time>2016-07-31T08:13:19Z</time>
      </trkpt>
      <trkpt lat="42.42964" lon="0.02349">
        <ele>960.1</ele>
        <time>2016-07-31T08:13:20Z</time>
      </trkpt>
      <trkpt lat="42.42961" lon="0.02348">
        <ele>959.5</ele>
        <time>2016-07-31T08:13:21Z</time>
      </trkpt>
      <trkpt lat="42.42957" lon="0.02347">
        <ele>959.3</ele>
        <time>2016-07-31T08:13:22Z</time>
      </trkpt>
      <trkpt lat="42.42953" lon="0.02345">
        <ele>959.6</ele>
        <time>2016-07-31T08:13:23Z</time>
      </trkpt>
      <trkpt lat="42.4295" lon="0.02343">
        <ele>959.9</ele>
        <time>2016-07-31T08:13:24Z</time>
      </trkpt>
      <trkpt lat="42.42946" lon="0.0234">
        <ele>960.3</ele>
        <time>2016-07-31T08:13:25Z</time>
      </trkpt>
      <trkpt lat="42.42943" lon="0.02337">
        <ele>960.7</ele>
        <time>2016-07-31T08:13:26Z</time>
      </trkpt>
      <trkpt lat="42.42939" lon="0.02335">
        <ele>961</ele>
        <time>2016-07-31T08:13:27Z</time>
      </trkpt>
      <trkpt lat="42.42936" lon="0.02332">
        <ele>961.2</ele>
        <time>2016-07-31T08:13:28Z</time>
      </trkpt>
      <trkpt lat="42.42933" lon="0.02329">
        <ele>961.5</ele>
        <time>2016-07-31T08:13:29Z</time>
      </trkpt>
      <trkpt lat="42.4293" lon="0.02326">
        <ele>961.7</ele>
        <time>2016-07-31T08:13:30Z</time>
      </trkpt>
      <trkpt lat="42.42927" lon="0.02324">
        <ele>961.8</ele>
        <time>2016-07-31T08:13:31Z</time>
      </trkpt>
      <trkpt lat="42.42924" lon="0.0232">
        <ele>961.9</ele>
        <time>2016-07-31T08:13:32Z</time>
      </trkpt>
      <trkpt lat="42.42922" lon="0.02318">
        <ele>962</ele>
        <time>2016-07-31T08:13:33Z</time>
      </trkpt>
      <trkpt lat="42.42919" lon="0.02315">
        <ele>962</ele>
        <time>2016-07-31T08:13:34Z</time>
      </trkpt>
      <trkpt lat="42.42916" lon="0.02312">
        <ele>961.9</ele>
        <time>2016-07-31T08:13:35Z</time>
      </trkpt>
      <trkpt lat="42.42913" lon="0.02309">
        <ele>961.7</ele>
        <time>2016-07-31T08:13:36Z</time>
      </trkpt>
      <trkpt lat="42.4291" lon="0.02306">
        <ele>961.5</ele>
        <time>2016-07-31T08:13:37Z</time>
      </trkpt>
      <trkpt lat="42.42908" lon="0.02304">
        <ele>961.2</ele>
        <time>2016-07-31T08:13:38Z</time>
      </trkpt>
      <trkpt lat="42.42905" lon="0.02302">
        <ele>960.8</ele>
        <time>2016-07-31T08:13:39Z</time>
      </trkpt>
      <trkpt lat="42.42903" lon="0.02299">
        <ele>960.6</ele>
        <time>2016-07-31T08:13:40Z</time>
      </trkpt>
      <trkpt lat="42.429" lon="0.02296">
        <ele>960.3</ele>
        <time>2016-07-31T08:13:41Z</time>
      </trkpt>
      <trkpt lat="42.42898" lon="0.02293">
        <ele>960</ele>
        <time>2016-07-31T08:13:42Z</time>
      </trkpt>
      <trkpt lat="42.42896" lon="0.0229">
        <ele>960</ele>
        <time>2016-07-31T08:13:43Z</time>
      </trkpt>
      <trkpt lat="42.42894" lon="0.02286">
        <ele>960.3</ele>
        <time>2016-07-31T08:13:44Z</time>
      </trkpt>
      <trkpt lat="42.42892" lon="0.02283">
        <ele>960.5</ele>
        <time>2016-07-31T08:13:45Z</time>
      </trkpt>
      <trkpt lat="42.4289" lon="0.0228">
        <ele>960.6</ele>
        <time>2016-07-31T08:13:46Z</time>
      </trkpt>
      <trkpt lat="42.42887" lon="0.02277">
        <ele>960.7</ele>
        <time>2016-07-31T08:13:47Z</time>
      </trkpt>
      <trkpt lat="42.42885" lon="0.02274">
        <ele>960.8</ele>
        <time>2016-07-31T08:13:48Z</time>
      </trkpt>
      <trkpt lat="42.42883" lon="0.02271">
        <ele>960.9</ele>
        <time>2016-07-31T08:13:49Z</time>
      </trkpt>
      <trkpt lat="42.42881" lon="0.02267">
        <ele>961.1</ele>
        <time>2016-07-31T08:13:50Z</time>
      </trkpt>
      <trkpt lat="42.42878" lon="0.02264">
        <ele>961.3</ele>
        <time>2016-07-31T08:13:51Z</time>
      </trkpt>
      <trkpt lat="42.42876" lon="0.0226">
        <ele>961.6</ele>
        <time>2016-07-31T08:13:52Z</time>
      </trkpt>
      <trkpt lat="42.42874" lon="0.02256">
        <ele>962.2</ele>
        <time>2016-07-31T08:13:53Z</time>
      </trkpt>
      <trkpt lat="42.42872" lon="0.02252">
        <ele>963.1</ele>
        <time>2016-07-31T08:13:54Z</time>
      </trkpt>
      <trkpt lat="42.42871" lon="0.02248">
        <ele>963.9</ele>
        <time>2016-07-31T08:13:55Z</time>
      </trkpt>
      <trkpt lat="42.42869" lon="0.02244">
        <ele>964.8</ele>
        <time>2016-07-31T08:13:56Z</time>
      </trkpt>
      <trkpt lat="42.42867" lon="0.02241">
        <ele>965.6</ele>
        <time>2016-07-31T08:13:57Z</time>
      </trkpt>
      <trkpt lat="42.42865" lon="0.02237">
        <ele>966.2</ele>
        <time>2016-07-31T08:13:58Z</time>
      </trkpt>
      <trkpt lat="42.42863" lon="0.02233">
        <ele>966.9</ele>
        <time>2016-07-31T08:13:59Z</time>
      </trkpt>
      <trkpt lat="42.42861" lon="0.0223">
        <ele>967.5</ele>
        <time>2016-07-31T08:14:00Z</time>
      </trkpt>
      <trkpt lat="42.42859" lon="0.02226">
        <ele>968.1</ele>
        <time>2016-07-31T08:14:01Z</time>
      </trkpt>
      <trkpt lat="42.42857" lon="0.02222">
        <ele>968.6</ele>
        <time>2016-07-31T08:14:02Z</time>
      </trkpt>
      <trkpt lat="42.42854" lon="0.02218">
        <ele>969.1</ele>
        <time>2016-07-31T08:14:03Z</time>
      </trkpt>
      <trkpt lat="42.42853" lon="0.02215">
        <ele>969.5</ele>
        <time>2016-07-31T08:14:04Z</time>
      </trkpt>
      <trkpt lat="42.42851" lon="0.02211">
        <ele>969.9</ele>
        <time>2016-07-31T08:14:05Z</time>
      </trkpt>
      <trkpt lat="42.42849" lon="0.02208">
        <ele>970.3</ele>
        <time>2016-07-31T08:14:06Z</time>
      </trkpt>
      <trkpt lat="42.42847" lon="0.02204">
        <ele>970.9</ele>
        <time>2016-07-31T08:14:07Z</time>
      </trkpt>
      <trkpt lat="42.42845" lon="0.02202">
        <ele>971.2</ele>
        <time>2016-07-31T08:14:08Z</time>
      </trkpt>
      <trkpt lat="42.42842" lon="0.02199">
        <ele>971.4</ele>
        <time>2016-07-31T08:14:09Z</time>
      </trkpt>
      <trkpt lat="42.4284" lon="0.02196">
        <ele>971.6</ele>
        <time>2016-07-31T08:14:10Z</time>
      </trkpt>
      <trkpt lat="42.42837" lon="0.02194">
        <ele>971.7</ele>
        <time>2016-07-31T08:14:11Z</time>
      </trkpt>
      <trkpt lat="42.42834" lon="0.02191">
        <ele>971.7</ele>
        <time>2016-07-31T08:14:12Z</time>
      </trkpt>
      <trkpt lat="42.42832" lon="0.02189">
        <ele>971.7</ele>
        <time>2016-07-31T08:14:13Z</time>
      </trkpt>
      <trkpt lat="42.42829" lon="0.02187">
        <ele>971.6</ele>
        <time>2016-07-31T08:14:14Z</time>
      </trkpt>
      <trkpt lat="42.42826" lon="0.02185">
        <ele>971.4</ele>
        <time>2016-07-31T08:14:15Z</time>
      </trkpt>
      <trkpt lat="42.42823" lon="0.02183">
        <ele>971.2</ele>
        <time>2016-07-31T08:14:16Z</time>
      </trkpt>
      <trkpt lat="42.4282" lon="0.02181">
        <ele>970.9</ele>
        <time>2016-07-31T08:14:17Z</time>
      </trkpt>
      <trkpt lat="42.42817" lon="0.02179">
        <ele>970.7</ele>
        <time>2016-07-31T08:14:18Z</time>
      </trkpt>
      <trkpt lat="42.42815" lon="0.02176">
        <ele>970.5</ele>
        <time>2016-07-31T08:14:19Z</time>
      </trkpt>
      <trkpt lat="42.42812" lon="0.02174">
        <ele>970.2</ele>
        <time>2016-07-31T08:14:20Z</time>
      </trkpt>
      <trkpt lat="42.42809" lon="0.02172">
        <ele>970</ele>
        <time>2016-07-31T08:14:21Z</time>
      </trkpt>
      <trkpt lat="42.42807" lon="0.0217">
        <ele>969.6</ele>
        <time>2016-07-31T08:14:22Z</time>
      </trkpt>
      <trkpt lat="42.42804" lon="0.02168">
        <ele>969.3</ele>
        <time>2016-07-31T08:14:23Z</time>
      </trkpt>
      <trkpt lat="42.42802" lon="0.02166">
        <ele>968.9</ele>
        <time>2016-07-31T08:14:24Z</time>
      </trkpt>
      <trkpt lat="42.428" lon="0.02164">
        <ele>968.6</ele>
        <time>2016-07-31T08:14:25Z</time>
      </trkpt>
      <trkpt lat="42.42798" lon="0.02161">
        <ele>968.3</ele>
        <time>2016-07-31T08:14:26Z</time>
      </trkpt>
      <trkpt lat="42.42796" lon="0.02158">
        <ele>968</ele>
        <time>2016-07-31T08:14:27Z</time>
      </trkpt>
      <trkpt lat="42.42794" lon="0.02155">
        <ele>967.7</ele>
        <time>2016-07-31T08:14:28Z</time>
      </trkpt>
      <trkpt lat="42.42792" lon="0.02152">
        <ele>967.4</ele>
        <time>2016-07-31T08:14:29Z</time>
      </trkpt>
      <trkpt lat="42.4279" lon="0.02149">
        <ele>967.8</ele>
        <time>2016-07-31T08:14:30Z</time>
      </trkpt>
      <trkpt lat="42.42789" lon="0.02146">
        <ele>968.3</ele>
        <time>2016-07-31T08:14:31Z</time>
      </trkpt>
      <trkpt lat="42.42787" lon="0.02143">
        <ele>968.7</ele>
        <time>2016-07-31T08:14:32Z</time>
      </trkpt>
      <trkpt lat="42.42786" lon="0.02139">
        <ele>969.1</ele>
        <time>2016-07-31T08:14:33Z</time>
      </trkpt>
      <trkpt lat="42.42785" lon="0.02136">
        <ele>969.5</ele>
        <time>2016-07-31T08:14:34Z</time>
      </trkpt>
      <trkpt lat="42.42783" lon="0.02132">
        <ele>969.8</ele>
        <time>2016-07-31T08:14:35Z</time>
      </trkpt>
      <trkpt lat="42.42782" lon="0.02129">
        <ele>970.2</ele>
        <time>2016-07-31T08:14:36Z</time>
      </trkpt>
      <trkpt lat="42.42781" lon="0.02125">
        <ele>970.5</ele>
        <time>2016-07-31T08:14:37Z</time>
      </trkpt>
      <trkpt lat="42.42779" lon="0.02122">
        <ele>971.4</ele>
        <time>2016-07-31T08:14:38Z</time>
      </trkpt>
      <trkpt lat="42.42778" lon="0.02118">
        <ele>972.2</ele>
        <time>2016-07-31T08:14:39Z</time>
      </trkpt>
      <trkpt lat="42.42776" lon="0.02115">
        <ele>973.1</ele>
        <time>2016-07-31T08:14:40Z</time>
      </trkpt>
      <trkpt lat="42.42775" lon="0.02111">
        <ele>973.9</ele>
        <time>2016-07-31T08:14:41Z</time>
      </trkpt>
      <trkpt lat="42.42773" lon="0.02108">
        <ele>974.7</ele>
        <time>2016-07-31T08:14:42Z</time>
      </trkpt>
      <trkpt lat="42.42771" lon="0.02105">
        <ele>975.3</ele>
        <time>2016-07-31T08:14:43Z</time>
      </trkpt>
      <trkpt lat="42.4277" lon="0.02102">
        <ele>976</ele>
        <time>2016-07-31T08:14:44Z</time>
      </trkpt>
      <trkpt lat="42.42768" lon="0.02098">
        <ele>976.6</ele>
        <time>2016-07-31T08:14:45Z</time>
      </trkpt>
      <trkpt lat="42.42766" lon="0.02095">
        <ele>977.1</ele>
        <time>2016-07-31T08:14:46Z</time>
      </trkpt>
      <trkpt lat="42.42765" lon="0.02092">
        <ele>977.7</ele>
        <time>2016-07-31T08:14:47Z</time>
      </trkpt>
      <trkpt lat="42.42763" lon="0.02088">
        <ele>978.3</ele>
        <time>2016-07-31T08:14:48Z</time>
      </trkpt>
      <trkpt lat="42.42762" lon="0.02085">
        <ele>978.8</ele>
        <time>2016-07-31T08:14:49Z</time>
      </trkpt>
      <trkpt lat="42.4276" lon="0.02082">
        <ele>979.2</ele>
        <time>2016-07-31T08:14:50Z</time>
      </trkpt>
      <trkpt lat="42.42758" lon="0.02078">
        <ele>979.5</ele>
        <time>2016-07-31T08:14:51Z</time>
      </trkpt>
      <trkpt lat="42.42756" lon="0.02075">
        <ele>979.8</ele>
        <time>2016-07-31T08:14:52Z</time>
      </trkpt>
      <trkpt lat="42.42754" lon="0.02072">
        <ele>980.1</ele>
        <time>2016-07-31T08:14:53Z</time>
      </trkpt>
      <trkpt lat="42.42752" lon="0.02069">
        <ele>980.3</ele>
        <time>2016-07-31T08:14:54Z</time>
      </trkpt>
      <trkpt lat="42.4275" lon="0.02066">
        <ele>980.6</ele>
        <time>2016-07-31T08:14:55Z</time>
      </trkpt>
      <trkpt lat="42.42749" lon="0.02062">
        <ele>980.8</ele>
        <time>2016-07-31T08:14:56Z</time>
      </trkpt>
      <trkpt lat="42.42748" lon="0.02058">
        <ele>981.1</ele>
        <time>2016-07-31T08:14:57Z</time>
      </trkpt>
      <trkpt lat="42.42745" lon="0.02052">
        <ele>981.3</ele>
        <time>2016-07-31T08:14:59Z</time>
      </trkpt>
      <trkpt lat="42.42744" lon="0.0205">
        <ele>981.3</ele>
        <time>2016-07-31T08:15:00Z</time>
      </trkpt>
      <trkpt lat="42.42742" lon="0.02047">
        <ele>981.2</ele>
        <time>2016-07-31T08:15:01Z</time>
      </trkpt>
      <trkpt lat="42.4274" lon="0.02044">
        <ele>981.1</ele>
        <time>2016-07-31T08:15:02Z</time>
      </trkpt>
      <trkpt lat="42.42738" lon="0.02041">
        <ele>981</ele>
        <time>2016-07-31T08:15:03Z</time>
      </trkpt>
      <trkpt lat="42.42735" lon="0.02038">
        <ele>981.3</ele>
        <time>2016-07-31T08:15:04Z</time>
      </trkpt>
      <trkpt lat="42.42733" lon="0.02035">
        <ele>981.6</ele>
        <time>2016-07-31T08:15:05Z</time>
      </trkpt>
      <trkpt lat="42.42731" lon="0.02032">
        <ele>981.9</ele>
        <time>2016-07-31T08:15:06Z</time>
      </trkpt>
      <trkpt lat="42.42729" lon="0.0203">
        <ele>982.1</ele>
        <time>2016-07-31T08:15:07Z</time>
      </trkpt>
      <trkpt lat="42.42727" lon="0.02027">
        <ele>982.2</ele>
        <time>2016-07-31T08:15:08Z</time>
      </trkpt>
      <trkpt lat="42.42725" lon="0.02024">
        <ele>982.4</ele>
        <time>2016-07-31T08:15:09Z</time>
      </trkpt>
      <trkpt lat="42.42723" lon="0.02021">
        <ele>982.7</ele>
        <time>2016-07-31T08:15:10Z</time>
      </trkpt>
      <trkpt lat="42.42721" lon="0.02018">
        <ele>983</ele>
        <time>2016-07-31T08:15:11Z</time>
      </trkpt>
      <trkpt lat="42.42719" lon="0.02015">
        <ele>983.3</ele>
        <time>2016-07-31T08:15:12Z</time>
      </trkpt>
      <trkpt lat="42.42717" lon="0.02012">
        <ele>983.5</ele>
        <time>2016-07-31T08:15:13Z</time>
      </trkpt>
      <trkpt lat="42.42714" lon="0.02006">
        <ele>984</ele>
        <time>2016-07-31T08:15:15Z</time>
      </trkpt>
      <trkpt lat="42.42712" lon="0.02003">
        <ele>984.1</ele>
        <time>2016-07-31T08:15:16Z</time>
      </trkpt>
      <trkpt lat="42.4271" lon="0.02">
        <ele>984.3</ele>
        <time>2016-07-31T08:15:17Z</time>
      </trkpt>
      <trkpt lat="42.42708" lon="0.01997">
        <ele>984.5</ele>
        <time>2016-07-31T08:15:18Z</time>
      </trkpt>
      <trkpt lat="42.42706" lon="0.01994">
        <ele>985.1</ele>
        <time>2016-07-31T08:15:19Z</time>
      </trkpt>
      <trkpt lat="42.42704" lon="0.01991">
        <ele>985.7</ele>
        <time>2016-07-31T08:15:20Z</time>
      </trkpt>
      <trkpt lat="42.42702" lon="0.01988">
        <ele>986.2</ele>
        <time>2016-07-31T08:15:21Z</time>
      </trkpt>
      <trkpt lat="42.427" lon="0.01985">
        <ele>986.7</ele>
        <time>2016-07-31T08:15:22Z</time>
      </trkpt>
      <trkpt lat="42.42698" lon="0.01981">
        <ele>987.1</ele>
        <time>2016-07-31T08:15:23Z</time>
      </trkpt>
      <trkpt lat="42.42696" lon="0.01978">
        <ele>987.4</ele>
        <time>2016-07-31T08:15:24Z</time>
      </trkpt>
      <trkpt lat="42.42694" lon="0.01975">
        <ele>987.7</ele>
        <time>2016-07-31T08:15:25Z</time>
      </trkpt>
      <trkpt lat="42.42692" lon="0.01972">
        <ele>987.9</ele>
        <time>2016-07-31T08:15:26Z</time>
      </trkpt>
      <trkpt lat="42.42689" lon="0.01969">
        <ele>988</ele>
        <time>2016-07-31T08:15:27Z</time>
      </trkpt>
      <trkpt lat="42.42687" lon="0.01966">
        <ele>988.1</ele>
        <time>2016-07-31T08:15:28Z</time>
      </trkpt>
      <trkpt lat="42.42684" lon="0.01963">
        <ele>988</ele>
        <time>2016-07-31T08:15:29Z</time>
      </trkpt>
      <trkpt lat="42.42681" lon="0.0196">
        <ele>987.9</ele>
        <time>2016-07-31T08:15:30Z</time>
      </trkpt>
      <trkpt lat="42.42678" lon="0.01958">
        <ele>987.6</ele>
        <time>2016-07-31T08:15:31Z</time>
      </trkpt>
      <trkpt lat="42.42675" lon="0.01955">
        <ele>987.5</ele>
        <time>2016-07-31T08:15:32Z</time>
      </trkpt>
      <trkpt lat="42.42672" lon="0.01952">
        <ele>987.4</ele>
        <time>2016-07-31T08:15:33Z</time>
      </trkpt>
      <trkpt lat="42.42669" lon="0.01949">
        <ele>987.3</ele>
        <time>2016-07-31T08:15:34Z</time>
      </trkpt>
      <trkpt lat="42.42666" lon="0.01947">
        <ele>987</ele>
        <time>2016-07-31T08:15:35Z</time>
      </trkpt>
      <trkpt lat="42.42662" lon="0.01945">
        <ele>986.8</ele>
        <time>2016-07-31T08:15:36Z</time>
      </trkpt>
      <trkpt lat="42.42659" lon="0.01943">
        <ele>986.6</ele>
        <time>2016-07-31T08:15:37Z</time>
      </trkpt>
      <trkpt lat="42.42655" lon="0.01941">
        <ele>986.3</ele>
        <time>2016-07-31T08:15:38Z</time>
      </trkpt>
      <trkpt lat="42.42652" lon="0.0194">
        <ele>985.9</ele>
        <time>2016-07-31T08:15:39Z</time>
      </trkpt>
      <trkpt lat="42.42648" lon="0.01938">
        <ele>985.6</ele>
        <time>2016-07-31T08:15:40Z</time>
      </trkpt>
      <trkpt lat="42.42644" lon="0.01937">
        <ele>985.2</ele>
        <time>2016-07-31T08:15:41Z</time>
      </trkpt>
      <trkpt lat="42.4264" lon="0.01935">
        <ele>984.9</ele>
        <time>2016-07-31T08:15:42Z</time>
      </trkpt>
      <trkpt lat="42.42636" lon="0.01932">
        <ele>984.7</ele>
        <time>2016-07-31T08:15:43Z</time>
      </trkpt>
      <trkpt lat="42.42633" lon="0.01929">
        <ele>984.6</ele>
        <time>2016-07-31T08:15:44Z</time>
      </trkpt>
      <trkpt lat="42.4263" lon="0.01925">
        <ele>984.6</ele>
        <time>2016-07-31T08:15:45Z</time>
      </trkpt>
      <trkpt lat="42.42627" lon="0.01922">
        <ele>984.6</ele>
        <time>2016-07-31T08:15:46Z</time>
      </trkpt>
      <trkpt lat="42.42624" lon="0.01919">
        <ele>984.9</ele>
        <time>2016-07-31T08:15:47Z</time>
      </trkpt>
      <trkpt lat="42.42621" lon="0.01916">
        <ele>985.5</ele>
        <time>2016-07-31T08:15:48Z</time>
      </trkpt>
      <trkpt lat="42.42618" lon="0.01912">
        <ele>986</ele>
        <time>2016-07-31T08:15:49Z</time>
      </trkpt>
      <trkpt lat="42.42615" lon="0.01909">
        <ele>986.5</ele>
        <time>2016-07-31T08:15:50Z</time>
      </trkpt>
      <trkpt lat="42.42612" lon="0.01906">
        <ele>987</ele>
        <time>2016-07-31T08:15:51Z</time>
      </trkpt>
      <trkpt lat="42.42609" lon="0.01903">
        <ele>987.5</ele>
        <time>2016-07-31T08:15:52Z</time>
      </trkpt>
      <trkpt lat="42.42606" lon="0.019">
        <ele>987.9</ele>
        <time>2016-07-31T08:15:53Z</time>
      </trkpt>
      <trkpt lat="42.42604" lon="0.01897">
        <ele>988.2</ele>
        <time>2016-07-31T08:15:54Z</time>
      </trkpt>
      <trkpt lat="42.42601" lon="0.01895">
        <ele>988.4</ele>
        <time>2016-07-31T08:15:55Z</time>
      </trkpt>
      <trkpt lat="42.42598" lon="0.01892">
        <ele>988.7</ele>
        <time>2016-07-31T08:15:56Z</time>
      </trkpt>
      <trkpt lat="42.42596" lon="0.01889">
        <ele>988.9</ele>
        <time>2016-07-31T08:15:57Z</time>
      </trkpt>
      <trkpt lat="42.42594" lon="0.01886">
        <ele>989.1</ele>
        <time>2016-07-31T08:15:58Z</time>
      </trkpt>
      <trkpt lat="42.42591" lon="0.01883">
        <ele>989.3</ele>
        <time>2016-07-31T08:15:59Z</time>
      </trkpt>
      <trkpt lat="42.42589" lon="0.01879">
        <ele>989.4</ele>
        <time>2016-07-31T08:16:00Z</time>
      </trkpt>
      <trkpt lat="42.42587" lon="0.01876">
        <ele>989.5</ele>
        <time>2016-07-31T08:16:01Z</time>
      </trkpt>
      <trkpt lat="42.42584" lon="0.01873">
        <ele>989.7</ele>
        <time>2016-07-31T08:16:02Z</time>
      </trkpt>
      <trkpt lat="42.42582" lon="0.0187">
        <ele>989.9</ele>
        <time>2016-07-31T08:16:03Z</time>
      </trkpt>
      <trkpt lat="42.4258" lon="0.01867">
        <ele>990.1</ele>
        <time>2016-07-31T08:16:04Z</time>
      </trkpt>
      <trkpt lat="42.42577" lon="0.01864">
        <ele>990.3</ele>
        <time>2016-07-31T08:16:05Z</time>
      </trkpt>
      <trkpt lat="42.42574" lon="0.01862">
        <ele>990.4</ele>
        <time>2016-07-31T08:16:06Z</time>
      </trkpt>
      <trkpt lat="42.42571" lon="0.01859">
        <ele>990.5</ele>
        <time>2016-07-31T08:16:07Z</time>
      </trkpt>
      <trkpt lat="42.42569" lon="0.01858">
        <ele>990.6</ele>
        <time>2016-07-31T08:16:08Z</time>
      </trkpt>
      <trkpt lat="42.42566" lon="0.01856">
        <ele>990.6</ele>
        <time>2016-07-31T08:16:09Z</time>
      </trkpt>
      <trkpt lat="42.42563" lon="0.01854">
        <ele>990.7</ele>
        <time>2016-07-31T08:16:10Z</time>
      </trkpt>
      <trkpt lat="42.4256" lon="0.01852">
        <ele>990.7</ele>
        <time>2016-07-31T08:16:11Z</time>
      </trkpt>
      <trkpt lat="42.42557" lon="0.01849">
        <ele>990.8</ele>
        <time>2016-07-31T08:16:12Z</time>
      </trkpt>
      <trkpt lat="42.42555" lon="0.01847">
        <ele>990.8</ele>
        <time>2016-07-31T08:16:13Z</time>
      </trkpt>
      <trkpt lat="42.42553" lon="0.01845">
        <ele>990.9</ele>
        <time>2016-07-31T08:16:14Z</time>
      </trkpt>
      <trkpt lat="42.4255" lon="0.01843">
        <ele>990.9</ele>
        <time>2016-07-31T08:16:15Z</time>
      </trkpt>
      <trkpt lat="42.42548" lon="0.01841">
        <ele>990.9</ele>
        <time>2016-07-31T08:16:16Z</time>
      </trkpt>
      <trkpt lat="42.42545" lon="0.01838">
        <ele>990.9</ele>
        <time>2016-07-31T08:16:17Z</time>
      </trkpt>
      <trkpt lat="42.42543" lon="0.01836">
        <ele>990.9</ele>
        <time>2016-07-31T08:16:18Z</time>
      </trkpt>
      <trkpt lat="42.42539" lon="0.01832">
        <ele>992.1</ele>
        <time>2016-07-31T08:16:20Z</time>
      </trkpt>
      <trkpt lat="42.42535" lon="0.01826">
        <ele>993.5</ele>
        <time>2016-07-31T08:16:22Z</time>
      </trkpt>
      <trkpt lat="42.42534" lon="0.01823">
        <ele>994.2</ele>
        <time>2016-07-31T08:16:23Z</time>
      </trkpt>
      <trkpt lat="42.42533" lon="0.01819">
        <ele>994.8</ele>
        <time>2016-07-31T08:16:24Z</time>
      </trkpt>
      <trkpt lat="42.42532" lon="0.01816">
        <ele>995.4</ele>
        <time>2016-07-31T08:16:25Z</time>
      </trkpt>
      <trkpt lat="42.42531" lon="0.01812">
        <ele>996</ele>
        <time>2016-07-31T08:16:26Z</time>
      </trkpt>
      <trkpt lat="42.4253" lon="0.01808">
        <ele>996.7</ele>
        <time>2016-07-31T08:16:27Z</time>
      </trkpt>
      <trkpt lat="42.42529" lon="0.01803">
        <ele>997.3</ele>
        <time>2016-07-31T08:16:28Z</time>
      </trkpt>
      <trkpt lat="42.42529" lon="0.01799">
        <ele>997.7</ele>
        <time>2016-07-31T08:16:29Z</time>
      </trkpt>
      <trkpt lat="42.42529" lon="0.01794">
        <ele>998</ele>
        <time>2016-07-31T08:16:30Z</time>
      </trkpt>
      <trkpt lat="42.42529" lon="0.01789">
        <ele>998.2</ele>
        <time>2016-07-31T08:16:31Z</time>
      </trkpt>
      <trkpt lat="42.4253" lon="0.01784">
        <ele>998.3</ele>
        <time>2016-07-31T08:16:32Z</time>
      </trkpt>
      <trkpt lat="42.4253" lon="0.01779">
        <ele>998.4</ele>
        <time>2016-07-31T08:16:33Z</time>
      </trkpt>
      <trkpt lat="42.42531" lon="0.01774">
        <ele>998.5</ele>
        <time>2016-07-31T08:16:34Z</time>
      </trkpt>
      <trkpt lat="42.42532" lon="0.01769">
        <ele>998.6</ele>
        <time>2016-07-31T08:16:35Z</time>
      </trkpt>
      <trkpt lat="42.42532" lon="0.01765">
        <ele>998.6</ele>
        <time>2016-07-31T08:16:36Z</time>
      </trkpt>
      <trkpt lat="42.42533" lon="0.0176">
        <ele>998.7</ele>
        <time>2016-07-31T08:16:37Z</time>
      </trkpt>
      <trkpt lat="42.42533" lon="0.01756">
        <ele>998.8</ele>
        <time>2016-07-31T08:16:38Z</time>
      </trkpt>
      <trkpt lat="42.42534" lon="0.01751">
        <ele>999</ele>
        <time>2016-07-31T08:16:39Z</time>
      </trkpt>
      <trkpt lat="42.42534" lon="0.01746">
        <ele>999.2</ele>
        <time>2016-07-31T08:16:40Z</time>
      </trkpt>
      <trkpt lat="42.42534" lon="0.01742">
        <ele>999.5</ele>
        <time>2016-07-31T08:16:41Z</time>
      </trkpt>
      <trkpt lat="42.42534" lon="0.01737">
        <ele>999.8</ele>
        <time>2016-07-31T08:16:42Z</time>
      </trkpt>
      <trkpt lat="42.42534" lon="0.01732">
        <ele>1000.1</ele>
        <time>2016-07-31T08:16:43Z</time>
      </trkpt>
      <trkpt lat="42.42534" lon="0.01728">
        <ele>1000.4</ele>
        <time>2016-07-31T08:16:44Z</time>
      </trkpt>
      <trkpt lat="42.42534" lon="0.01723">
        <ele>1000.7</ele>
        <time>2016-07-31T08:16:45Z</time>
      </trkpt>
      <trkpt lat="42.42534" lon="0.01719">
        <ele>1001</ele>
        <time>2016-07-31T08:16:46Z</time>
      </trkpt>
      <trkpt lat="42.42534" lon="0.01714">
        <ele>1001.3</ele>
        <time>2016-07-31T08:16:47Z</time>
      </trkpt>
      <trkpt lat="42.42534" lon="0.0171">
        <ele>1001.6</ele>
        <time>2016-07-31T08:16:48Z</time>
      </trkpt>
      <trkpt lat="42.42535" lon="0.01705">
        <ele>1001.7</ele>
        <time>2016-07-31T08:16:49Z</time>
      </trkpt>
      <trkpt lat="42.42535" lon="0.01701">
        <ele>1001.7</ele>
        <time>2016-07-31T08:16:50Z</time>
      </trkpt>
      <trkpt lat="42.42535" lon="0.01696">
        <ele>1001.8</ele>
        <time>2016-07-31T08:16:51Z</time>
      </trkpt>
      <trkpt lat="42.42534" lon="0.01692">
        <ele>1001.9</ele>
        <time>2016-07-31T08:16:52Z</time>
      </trkpt>
      <trkpt lat="42.42535" lon="0.01688">
        <ele>1001.9</ele>
        <time>2016-07-31T08:16:53Z</time>
      </trkpt>
      <trkpt lat="42.42535" lon="0.01684">
        <ele>1001.9</ele>
        <time>2016-07-31T08:16:54Z</time>
      </trkpt>
      <trkpt lat="42.42535" lon="0.0168">
        <ele>1001.8</ele>
        <time>2016-07-31T08:16:55Z</time>
      </trkpt>
      <trkpt lat="42.42536" lon="0.01675">
        <ele>1001.6</ele>
        <time>2016-07-31T08:16:56Z</time>
      </trkpt>
      <trkpt lat="42.42536" lon="0.01671">
        <ele>1001.4</ele>
        <time>2016-07-31T08:16:57Z</time>
      </trkpt>
      <trkpt lat="42.42536" lon="0.01667">
        <ele>1001.4</ele>
        <time>2016-07-31T08:16:58Z</time>
      </trkpt>
      <trkpt lat="42.42536" lon="0.01663">
        <ele>1001.5</ele>
        <time>2016-07-31T08:16:59Z</time>
      </trkpt>
      <trkpt lat="42.42536" lon="0.01658">
        <ele>1001.6</ele>
        <time>2016-07-31T08:17:00Z</time>
      </trkpt>
      <trkpt lat="42.42536" lon="0.01654">
        <ele>1001.7</ele>
        <time>2016-07-31T08:17:01Z</time>
      </trkpt>
      <trkpt lat="42.42536" lon="0.0165">
        <ele>1001.8</ele>
        <time>2016-07-31T08:17:02Z</time>
      </trkpt>
      <trkpt lat="42.42536" lon="0.01645">
        <ele>1001.9</ele>
        <time>2016-07-31T08:17:03Z</time>
      </trkpt>
      <trkpt lat="42.42536" lon="0.01641">
        <ele>1001.9</ele>
        <time>2016-07-31T08:17:04Z</time>
      </trkpt>
      <trkpt lat="42.42536" lon="0.01636">
        <ele>1001.9</ele>
        <time>2016-07-31T08:17:05Z</time>
      </trkpt>
      <trkpt lat="42.42536" lon="0.01632">
        <ele>1002</ele>
        <time>2016-07-31T08:17:06Z</time>
      </trkpt>
      <trkpt lat="42.42536" lon="0.01627">
        <ele>1002</ele>
        <time>2016-07-31T08:17:07Z</time>
      </trkpt>
      <trkpt lat="42.42536" lon="0.01623">
        <ele>1001.9</ele>
        <time>2016-07-31T08:17:08Z</time>
      </trkpt>
      <trkpt lat="42.42536" lon="0.01618">
        <ele>1001.6</ele>
        <time>2016-07-31T08:17:09Z</time>
      </trkpt>
      <trkpt lat="42.42536" lon="0.01614">
        <ele>1001.3</ele>
        <time>2016-07-31T08:17:10Z</time>
      </trkpt>
      <trkpt lat="42.42536" lon="0.01609">
        <ele>1001</ele>
        <time>2016-07-31T08:17:11Z</time>
      </trkpt>
      <trkpt lat="42.42536" lon="0.01605">
        <ele>1000.6</ele>
        <time>2016-07-31T08:17:12Z</time>
      </trkpt>
      <trkpt lat="42.42537" lon="0.016">
        <ele>1000.3</ele>
        <time>2016-07-31T08:17:13Z</time>
      </trkpt>
      <trkpt lat="42.42537" lon="0.01596">
        <ele>999.9</ele>
        <time>2016-07-31T08:17:14Z</time>
      </trkpt>
      <trkpt lat="42.42537" lon="0.01592">
        <ele>999.5</ele>
        <time>2016-07-31T08:17:15Z</time>
      </trkpt>
      <trkpt lat="42.42537" lon="0.01587">
        <ele>999.1</ele>
        <time>2016-07-31T08:17:16Z</time>
      </trkpt>
      <trkpt lat="42.42538" lon="0.01583">
        <ele>998.7</ele>
        <time>2016-07-31T08:17:17Z</time>
      </trkpt>
      <trkpt lat="42.42538" lon="0.01579">
        <ele>998.4</ele>
        <time>2016-07-31T08:17:18Z</time>
      </trkpt>
      <trkpt lat="42.42538" lon="0.01575">
        <ele>998.2</ele>
        <time>2016-07-31T08:17:19Z</time>
      </trkpt>
      <trkpt lat="42.42538" lon="0.0157">
        <ele>997.8</ele>
        <time>2016-07-31T08:17:20Z</time>
      </trkpt>
      <trkpt lat="42.42538" lon="0.01566">
        <ele>997.5</ele>
        <time>2016-07-31T08:17:21Z</time>
      </trkpt>
      <trkpt lat="42.42538" lon="0.01561">
        <ele>997.1</ele>
        <time>2016-07-31T08:17:22Z</time>
      </trkpt>
      <trkpt lat="42.42538" lon="0.01557">
        <ele>996.8</ele>
        <time>2016-07-31T08:17:23Z</time>
      </trkpt>
      <trkpt lat="42.42538" lon="0.01552">
        <ele>996.5</ele>
        <time>2016-07-31T08:17:24Z</time>
      </trkpt>
      <trkpt lat="42.42538" lon="0.01547">
        <ele>996.2</ele>
        <time>2016-07-31T08:17:25Z</time>
      </trkpt>
      <trkpt lat="42.42538" lon="0.01543">
        <ele>995.9</ele>
        <time>2016-07-31T08:17:26Z</time>
      </trkpt>
      <trkpt lat="42.42538" lon="0.01539">
        <ele>996</ele>
        <time>2016-07-31T08:17:27Z</time>
      </trkpt>
      <trkpt lat="42.42538" lon="0.01534">
        <ele>996.3</ele>
        <time>2016-07-31T08:17:28Z</time>
      </trkpt>
      <trkpt lat="42.42538" lon="0.0153">
        <ele>996.6</ele>
        <time>2016-07-31T08:17:29Z</time>
      </trkpt>
      <trkpt lat="42.42537" lon="0.01526">
        <ele>997</ele>
        <time>2016-07-31T08:17:30Z</time>
      </trkpt>
      <trkpt lat="42.42536" lon="0.01522">
        <ele>997.4</ele>
        <time>2016-07-31T08:17:31Z</time>
      </trkpt>
      <trkpt lat="42.42535" lon="0.01518">
        <ele>997.9</ele>
        <time>2016-07-31T08:17:32Z</time>
      </trkpt>
      <trkpt lat="42.42533" lon="0.01514">
        <ele>998.4</ele>
        <time>2016-07-31T08:17:33Z</time>
      </trkpt>
      <trkpt lat="42.42532" lon="0.01511">
        <ele>998.8</ele>
        <time>2016-07-31T08:17:34Z</time>
      </trkpt>
      <trkpt lat="42.4253" lon="0.01507">
        <ele>999.3</ele>
        <time>2016-07-31T08:17:35Z</time>
      </trkpt>
      <trkpt lat="42.42528" lon="0.01503">
        <ele>999.8</ele>
        <time>2016-07-31T08:17:36Z</time>
      </trkpt>
      <trkpt lat="42.42526" lon="0.01499">
        <ele>1000.2</ele>
        <time>2016-07-31T08:17:37Z</time>
      </trkpt>
      <trkpt lat="42.42525" lon="0.01495">
        <ele>1000.6</ele>
        <time>2016-07-31T08:17:38Z</time>
      </trkpt>
      <trkpt lat="42.42523" lon="0.01491">
        <ele>1001</ele>
        <time>2016-07-31T08:17:39Z</time>
      </trkpt>
      <trkpt lat="42.42521" lon="0.01487">
        <ele>1001.3</ele>
        <time>2016-07-31T08:17:40Z</time>
      </trkpt>
      <trkpt lat="42.42519" lon="0.01484">
        <ele>1001.7</ele>
        <time>2016-07-31T08:17:41Z</time>
      </trkpt>
      <trkpt lat="42.42518" lon="0.01481">
        <ele>1002</ele>
        <time>2016-07-31T08:17:42Z</time>
      </trkpt>
      <trkpt lat="42.42516" lon="0.01478">
        <ele>1002.3</ele>
        <time>2016-07-31T08:17:43Z</time>
      </trkpt>
      <trkpt lat="42.42514" lon="0.01474">
        <ele>1002.5</ele>
        <time>2016-07-31T08:17:44Z</time>
      </trkpt>
      <trkpt lat="42.42512" lon="0.0147">
        <ele>1002.8</ele>
        <time>2016-07-31T08:17:45Z</time>
      </trkpt>
      <trkpt lat="42.42511" lon="0.01467">
        <ele>1003</ele>
        <time>2016-07-31T08:17:46Z</time>
      </trkpt>
      <trkpt lat="42.42509" lon="0.01463">
        <ele>1003.2</ele>
        <time>2016-07-31T08:17:47Z</time>
      </trkpt>
      <trkpt lat="42.42507" lon="0.01459">
        <ele>1003.3</ele>
        <time>2016-07-31T08:17:48Z</time>
      </trkpt>
      <trkpt lat="42.42505" lon="0.01456">
        <ele>1003.7</ele>
        <time>2016-07-31T08:17:49Z</time>
      </trkpt>
      <trkpt lat="42.42503" lon="0.01453">
        <ele>1004.2</ele>
        <time>2016-07-31T08:17:50Z</time>
      </trkpt>
      <trkpt lat="42.42501" lon="0.0145">
        <ele>1004.6</ele>
        <time>2016-07-31T08:17:51Z</time>
      </trkpt>
      <trkpt lat="42.42499" lon="0.01447">
        <ele>1005.1</ele>
        <time>2016-07-31T08:17:52Z</time>
      </trkpt>
      <trkpt lat="42.42497" lon="0.01443">
        <ele>1005.5</ele>
        <time>2016-07-31T08:17:53Z</time>
      </trkpt>
      <trkpt lat="42.42496" lon="0.0144">
        <ele>1005.9</ele>
        <time>2016-07-31T08:17:54Z</time>
      </trkpt>
      <trkpt lat="42.42494" lon="0.01437">
        <ele>1006.4</ele>
        <time>2016-07-31T08:17:55Z</time>
      </trkpt>
      <trkpt lat="42.42493" lon="0.01433">
        <ele>1006.8</ele>
        <time>2016-07-31T08:17:56Z</time>
      </trkpt>
      <trkpt lat="42.42492" lon="0.01429">
        <ele>1007.2</ele>
        <time>2016-07-31T08:17:57Z</time>
      </trkpt>
      <trkpt lat="42.42491" lon="0.01426">
        <ele>1007.6</ele>
        <time>2016-07-31T08:17:58Z</time>
      </trkpt>
      <trkpt lat="42.4249" lon="0.01421">
        <ele>1008.1</ele>
        <time>2016-07-31T08:17:59Z</time>
      </trkpt>
      <trkpt lat="42.42489" lon="0.01417">
        <ele>1008.5</ele>
        <time>2016-07-31T08:18:00Z</time>
      </trkpt>
      <trkpt lat="42.42488" lon="0.01413">
        <ele>1008.9</ele>
        <time>2016-07-31T08:18:01Z</time>
      </trkpt>
      <trkpt lat="42.42488" lon="0.01409">
        <ele>1009.3</ele>
        <time>2016-07-31T08:18:02Z</time>
      </trkpt>
      <trkpt lat="42.42488" lon="0.01404">
        <ele>1009.7</ele>
        <time>2016-07-31T08:18:03Z</time>
      </trkpt>
      <trkpt lat="42.42488" lon="0.01399">
        <ele>1010.1</ele>
        <time>2016-07-31T08:18:04Z</time>
      </trkpt>
      <trkpt lat="42.42488" lon="0.01395">
        <ele>1010.5</ele>
        <time>2016-07-31T08:18:05Z</time>
      </trkpt>
      <trkpt lat="42.42488" lon="0.0139">
        <ele>1010.9</ele>
        <time>2016-07-31T08:18:06Z</time>
      </trkpt>
      <trkpt lat="42.42489" lon="0.01385">
        <ele>1011.2</ele>
        <time>2016-07-31T08:18:07Z</time>
      </trkpt>
      <trkpt lat="42.42489" lon="0.01381">
        <ele>1011.6</ele>
        <time>2016-07-31T08:18:08Z</time>
      </trkpt>
      <trkpt lat="42.4249" lon="0.01376">
        <ele>1011.9</ele>
        <time>2016-07-31T08:18:09Z</time>
      </trkpt>
      <trkpt lat="42.42491" lon="0.01372">
        <ele>1011.9</ele>
        <time>2016-07-31T08:18:10Z</time>
      </trkpt>
      <trkpt lat="42.42491" lon="0.01368">
        <ele>1012</ele>
        <time>2016-07-31T08:18:11Z</time>
      </trkpt>
      <trkpt lat="42.42491" lon="0.01363">
        <ele>1012</ele>
        <time>2016-07-31T08:18:12Z</time>
      </trkpt>
      <trkpt lat="42.42491" lon="0.01358">
        <ele>1012</ele>
        <time>2016-07-31T08:18:13Z</time>
      </trkpt>
      <trkpt lat="42.42491" lon="0.01353">
        <ele>1012.1</ele>
        <time>2016-07-31T08:18:14Z</time>
      </trkpt>
      <trkpt lat="42.42491" lon="0.01349">
        <ele>1012.1</ele>
        <time>2016-07-31T08:18:15Z</time>
      </trkpt>
      <trkpt lat="42.42491" lon="0.01344">
        <ele>1012.2</ele>
        <time>2016-07-31T08:18:16Z</time>
      </trkpt>
      <trkpt lat="42.42491" lon="0.0134">
        <ele>1012.3</ele>
        <time>2016-07-31T08:18:17Z</time>
      </trkpt>
      <trkpt lat="42.42491" lon="0.01336">
        <ele>1012.3</ele>
        <time>2016-07-31T08:18:18Z</time>
      </trkpt>
      <trkpt lat="42.42491" lon="0.01331">
        <ele>1012.3</ele>
        <time>2016-07-31T08:18:19Z</time>
      </trkpt>
      <trkpt lat="42.42491" lon="0.01327">
        <ele>1012.4</ele>
        <time>2016-07-31T08:18:20Z</time>
      </trkpt>
      <trkpt lat="42.42491" lon="0.01323">
        <ele>1012.4</ele>
        <time>2016-07-31T08:18:21Z</time>
      </trkpt>
      <trkpt lat="42.42491" lon="0.0132">
        <ele>1012.5</ele>
        <time>2016-07-31T08:18:22Z</time>
      </trkpt>
      <trkpt lat="42.42491" lon="0.01316">
        <ele>1012.5</ele>
        <time>2016-07-31T08:18:23Z</time>
      </trkpt>
      <trkpt lat="42.42491" lon="0.01312">
        <ele>1012.6</ele>
        <time>2016-07-31T08:18:24Z</time>
      </trkpt>
      <trkpt lat="42.42491" lon="0.01308">
        <ele>1012.6</ele>
        <time>2016-07-31T08:18:25Z</time>
      </trkpt>
      <trkpt lat="42.42491" lon="0.01304">
        <ele>1012.7</ele>
        <time>2016-07-31T08:18:26Z</time>
      </trkpt>
      <trkpt lat="42.4249" lon="0.013">
        <ele>1012.8</ele>
        <time>2016-07-31T08:18:27Z</time>
      </trkpt>
      <trkpt lat="42.42489" lon="0.01297">
        <ele>1012.8</ele>
        <time>2016-07-31T08:18:28Z</time>
      </trkpt>
      <trkpt lat="42.42488" lon="0.01293">
        <ele>1012.9</ele>
        <time>2016-07-31T08:18:29Z</time>
      </trkpt>
      <trkpt lat="42.42487" lon="0.0129">
        <ele>1013.1</ele>
        <time>2016-07-31T08:18:30Z</time>
      </trkpt>
      <trkpt lat="42.42485" lon="0.01286">
        <ele>1013.2</ele>
        <time>2016-07-31T08:18:31Z</time>
      </trkpt>
      <trkpt lat="42.42484" lon="0.01283">
        <ele>1013.4</ele>
        <time>2016-07-31T08:18:32Z</time>
      </trkpt>
      <trkpt lat="42.42482" lon="0.0128">
        <ele>1013.5</ele>
        <time>2016-07-31T08:18:33Z</time>
      </trkpt>
      <trkpt lat="42.4248" lon="0.01277">
        <ele>1013.7</ele>
        <time>2016-07-31T08:18:34Z</time>
      </trkpt>
      <trkpt lat="42.42478" lon="0.01275">
        <ele>1013.8</ele>
        <time>2016-07-31T08:18:35Z</time>
      </trkpt>
      <trkpt lat="42.42476" lon="0.01272">
        <ele>1013.9</ele>
        <time>2016-07-31T08:18:36Z</time>
      </trkpt>
      <trkpt lat="42.42473" lon="0.0127">
        <ele>1013.9</ele>
        <time>2016-07-31T08:18:37Z</time>
      </trkpt>
      <trkpt lat="42.4247" lon="0.01268">
        <ele>1014</ele>
        <time>2016-07-31T08:18:38Z</time>
      </trkpt>
      <trkpt lat="42.42467" lon="0.01266">
        <ele>1014</ele>
        <time>2016-07-31T08:18:39Z</time>
      </trkpt>
      <trkpt lat="42.42464" lon="0.01264">
        <ele>1014</ele>
        <time>2016-07-31T08:18:40Z</time>
      </trkpt>
      <trkpt lat="42.4246" lon="0.01263">
        <ele>1014</ele>
        <time>2016-07-31T08:18:41Z</time>
      </trkpt>
      <trkpt lat="42.42457" lon="0.01263">
        <ele>1014.3</ele>
        <time>2016-07-31T08:18:42Z</time>
      </trkpt>
      <trkpt lat="42.42454" lon="0.01263">
        <ele>1015.1</ele>
        <time>2016-07-31T08:18:43Z</time>
      </trkpt>
      <trkpt lat="42.42451" lon="0.01264">
        <ele>1016</ele>
        <time>2016-07-31T08:18:44Z</time>
      </trkpt>
      <trkpt lat="42.42448" lon="0.01265">
        <ele>1016.7</ele>
        <time>2016-07-31T08:18:45Z</time>
      </trkpt>
      <trkpt lat="42.42445" lon="0.01267">
        <ele>1017.5</ele>
        <time>2016-07-31T08:18:46Z</time>
      </trkpt>
      <trkpt lat="42.42442" lon="0.0127">
        <ele>1018.3</ele>
        <time>2016-07-31T08:18:47Z</time>
      </trkpt>
      <trkpt lat="42.42439" lon="0.01272">
        <ele>1019</ele>
        <time>2016-07-31T08:18:48Z</time>
      </trkpt>
      <trkpt lat="42.42437" lon="0.01275">
        <ele>1019.7</ele>
        <time>2016-07-31T08:18:49Z</time>
      </trkpt>
      <trkpt lat="42.42434" lon="0.01279">
        <ele>1020.4</ele>
        <time>2016-07-31T08:18:50Z</time>
      </trkpt>
      <trkpt lat="42.42432" lon="0.01282">
        <ele>1021</ele>
        <time>2016-07-31T08:18:51Z</time>
      </trkpt>
      <trkpt lat="42.42431" lon="0.01286">
        <ele>1021.5</ele>
        <time>2016-07-31T08:18:52Z</time>
      </trkpt>
      <trkpt lat="42.42429" lon="0.0129">
        <ele>1022</ele>
        <time>2016-07-31T08:18:53Z</time>
      </trkpt>
      <trkpt lat="42.42428" lon="0.01294">
        <ele>1022.2</ele>
        <time>2016-07-31T08:18:54Z</time>
      </trkpt>
      <trkpt lat="42.42428" lon="0.01297">
        <ele>1022.3</ele>
        <time>2016-07-31T08:18:55Z</time>
      </trkpt>
      <trkpt lat="42.42427" lon="0.01301">
        <ele>1022.4</ele>
        <time>2016-07-31T08:18:56Z</time>
      </trkpt>
      <trkpt lat="42.42426" lon="0.01304">
        <ele>1022.4</ele>
        <time>2016-07-31T08:18:57Z</time>
      </trkpt>
      <trkpt lat="42.42426" lon="0.01308">
        <ele>1022.4</ele>
        <time>2016-07-31T08:18:58Z</time>
      </trkpt>
      <trkpt lat="42.42426" lon="0.01312">
        <ele>1022.2</ele>
        <time>2016-07-31T08:18:59Z</time>
      </trkpt>
      <trkpt lat="42.42426" lon="0.01316">
        <ele>1022.1</ele>
        <time>2016-07-31T08:19:00Z</time>
      </trkpt>
      <trkpt lat="42.42426" lon="0.0132">
        <ele>1021.9</ele>
        <time>2016-07-31T08:19:01Z</time>
      </trkpt>
      <trkpt lat="42.42426" lon="0.01324">
        <ele>1021.8</ele>
        <time>2016-07-31T08:19:02Z</time>
      </trkpt>
      <trkpt lat="42.42426" lon="0.01331">
        <ele>1021.5</ele>
        <time>2016-07-31T08:19:04Z</time>
      </trkpt>
      <trkpt lat="42.42426" lon="0.01335">
        <ele>1021.4</ele>
        <time>2016-07-31T08:19:05Z</time>
      </trkpt>
      <trkpt lat="42.42426" lon="0.01342">
        <ele>1021.3</ele>
        <time>2016-07-31T08:19:07Z</time>
      </trkpt>
      <trkpt lat="42.42424" lon="0.01349">
        <ele>1021.3</ele>
        <time>2016-07-31T08:19:09Z</time>
      </trkpt>
      <trkpt lat="42.42423" lon="0.01352">
        <ele>1021.4</ele>
        <time>2016-07-31T08:19:10Z</time>
      </trkpt>
      <trkpt lat="42.42421" lon="0.01355">
        <ele>1021.6</ele>
        <time>2016-07-31T08:19:11Z</time>
      </trkpt>
      <trkpt lat="42.42419" lon="0.01358">
        <ele>1021.8</ele>
        <time>2016-07-31T08:19:12Z</time>
      </trkpt>
      <trkpt lat="42.42417" lon="0.01361">
        <ele>1022</ele>
        <time>2016-07-31T08:19:13Z</time>
      </trkpt>
      <trkpt lat="42.42415" lon="0.01364">
        <ele>1022.3</ele>
        <time>2016-07-31T08:19:14Z</time>
      </trkpt>
      <trkpt lat="42.42413" lon="0.01366">
        <ele>1022.5</ele>
        <time>2016-07-31T08:19:15Z</time>
      </trkpt>
      <trkpt lat="42.42411" lon="0.01368">
        <ele>1022.8</ele>
        <time>2016-07-31T08:19:16Z</time>
      </trkpt>
      <trkpt lat="42.42408" lon="0.0137">
        <ele>1023.1</ele>
        <time>2016-07-31T08:19:17Z</time>
      </trkpt>
      <trkpt lat="42.42406" lon="0.01371">
        <ele>1023.5</ele>
        <time>2016-07-31T08:19:18Z</time>
      </trkpt>
      <trkpt lat="42.42403" lon="0.01372">
        <ele>1023.9</ele>
        <time>2016-07-31T08:19:19Z</time>
      </trkpt>
      <trkpt lat="42.424" lon="0.01374">
        <ele>1024.2</ele>
        <time>2016-07-31T08:19:20Z</time>
      </trkpt>
      <trkpt lat="42.42397" lon="0.01375">
        <ele>1024.6</ele>
        <time>2016-07-31T08:19:21Z</time>
      </trkpt>
      <trkpt lat="42.42394" lon="0.01376">
        <ele>1024.9</ele>
        <time>2016-07-31T08:19:22Z</time>
      </trkpt>
      <trkpt lat="42.42391" lon="0.01377">
        <ele>1025.3</ele>
        <time>2016-07-31T08:19:23Z</time>
      </trkpt>
      <trkpt lat="42.42388" lon="0.01378">
        <ele>1025.6</ele>
        <time>2016-07-31T08:19:24Z</time>
      </trkpt>
      <trkpt lat="42.42385" lon="0.01379">
        <ele>1025.9</ele>
        <time>2016-07-31T08:19:25Z</time>
      </trkpt>
      <trkpt lat="42.42382" lon="0.0138">
        <ele>1026.2</ele>
        <time>2016-07-31T08:19:26Z</time>
      </trkpt>
      <trkpt lat="42.42379" lon="0.01381">
        <ele>1026.6</ele>
        <time>2016-07-31T08:19:27Z</time>
      </trkpt>
      <trkpt lat="42.42376" lon="0.01381">
        <ele>1027</ele>
        <time>2016-07-31T08:19:28Z</time>
      </trkpt>
      <trkpt lat="42.42374" lon="0.01381">
        <ele>1027.3</ele>
        <time>2016-07-31T08:19:29Z</time>
      </trkpt>
      <trkpt lat="42.42368" lon="0.01379">
        <ele>1028.1</ele>
        <time>2016-07-31T08:19:31Z</time>
      </trkpt>
      <trkpt lat="42.42364" lon="0.01377">
        <ele>1028.8</ele>
        <time>2016-07-31T08:19:33Z</time>
      </trkpt>
      <trkpt lat="42.42359" lon="0.01374">
        <ele>1029.6</ele>
        <time>2016-07-31T08:19:35Z</time>
      </trkpt>
      <trkpt lat="42.42355" lon="0.01371">
        <ele>1030.3</ele>
        <time>2016-07-31T08:19:37Z</time>
      </trkpt>
      <trkpt lat="42.4235" lon="0.01368">
        <ele>1031.1</ele>
        <time>2016-07-31T08:19:39Z</time>
      </trkpt>
      <trkpt lat="42.42345" lon="0.01366">
        <ele>1031.7</ele>
        <time>2016-07-31T08:19:41Z</time>
      </trkpt>
      <trkpt lat="42.42341" lon="0.01365">
        <ele>1032.3</ele>
        <time>2016-07-31T08:19:43Z</time>
      </trkpt>
      <trkpt lat="42.42336" lon="0.01362">
        <ele>1032.9</ele>
        <time>2016-07-31T08:19:45Z</time>
      </trkpt>
      <trkpt lat="42.42333" lon="0.01359">
        <ele>1033.5</ele>
        <time>2016-07-31T08:19:47Z</time>
      </trkpt>
      <trkpt lat="42.42328" lon="0.01356">
        <ele>1034.1</ele>
        <time>2016-07-31T08:19:49Z</time>
      </trkpt>
      <trkpt lat="42.42324" lon="0.01353">
        <ele>1034.8</ele>
        <time>2016-07-31T08:19:51Z</time>
      </trkpt>
      <trkpt lat="42.4232" lon="0.01351">
        <ele>1035.3</ele>
        <time>2016-07-31T08:19:53Z</time>
      </trkpt>
      <trkpt lat="42.42315" lon="0.0135">
        <ele>1035.8</ele>
        <time>2016-07-31T08:19:55Z</time>
      </trkpt>
      <trkpt lat="42.4231" lon="0.01349">
        <ele>1036.3</ele>
        <time>2016-07-31T08:19:57Z</time>
      </trkpt>
      <trkpt lat="42.42306" lon="0.01349">
        <ele>1036.7</ele>
        <time>2016-07-31T08:19:59Z</time>
      </trkpt>
      <trkpt lat="42.42301" lon="0.01351">
        <ele>1036.9</ele>
        <time>2016-07-31T08:20:01Z</time>
      </trkpt>
      <trkpt lat="42.42296" lon="0.01353">
        <ele>1037.2</ele>
        <time>2016-07-31T08:20:03Z</time>
      </trkpt>
      <trkpt lat="42.42292" lon="0.01355">
        <ele>1037.5</ele>
        <time>2016-07-31T08:20:05Z</time>
      </trkpt>
      <trkpt lat="42.42287" lon="0.01357">
        <ele>1037.3</ele>
        <time>2016-07-31T08:20:07Z</time>
      </trkpt>
      <trkpt lat="42.42283" lon="0.01359">
        <ele>1037.2</ele>
        <time>2016-07-31T08:20:09Z</time>
      </trkpt>
      <trkpt lat="42.42278" lon="0.01362">
        <ele>1037</ele>
        <time>2016-07-31T08:20:11Z</time>
      </trkpt>
      <trkpt lat="42.42273" lon="0.01364">
        <ele>1036.9</ele>
        <time>2016-07-31T08:20:13Z</time>
      </trkpt>
      <trkpt lat="42.42268" lon="0.01366">
        <ele>1036.7</ele>
        <time>2016-07-31T08:20:15Z</time>
      </trkpt>
      <trkpt lat="42.42263" lon="0.01368">
        <ele>1036.6</ele>
        <time>2016-07-31T08:20:17Z</time>
      </trkpt>
      <trkpt lat="42.4226" lon="0.01368">
        <ele>1036.5</ele>
        <time>2016-07-31T08:20:18Z</time>
      </trkpt>
      <trkpt lat="42.42255" lon="0.01369">
        <ele>1036.4</ele>
        <time>2016-07-31T08:20:20Z</time>
      </trkpt>
      <trkpt lat="42.42251" lon="0.01371">
        <ele>1036.4</ele>
        <time>2016-07-31T08:20:22Z</time>
      </trkpt>
      <trkpt lat="42.42245" lon="0.01371">
        <ele>1036.3</ele>
        <time>2016-07-31T08:20:24Z</time>
      </trkpt>
      <trkpt lat="42.4224" lon="0.01372">
        <ele>1036.2</ele>
        <time>2016-07-31T08:20:26Z</time>
      </trkpt>
      <trkpt lat="42.42237" lon="0.01372">
        <ele>1036.2</ele>
        <time>2016-07-31T08:20:27Z</time>
      </trkpt>
      <trkpt lat="42.42232" lon="0.01373">
        <ele>1036.1</ele>
        <time>2016-07-31T08:20:29Z</time>
      </trkpt>
      <trkpt lat="42.42227" lon="0.01374">
        <ele>1036.1</ele>
        <time>2016-07-31T08:20:31Z</time>
      </trkpt>
      <trkpt lat="42.42222" lon="0.01374">
        <ele>1036.1</ele>
        <time>2016-07-31T08:20:33Z</time>
      </trkpt>
      <trkpt lat="42.42216" lon="0.01373">
        <ele>1036.1</ele>
        <time>2016-07-31T08:20:35Z</time>
      </trkpt>
      <trkpt lat="42.42214" lon="0.01373">
        <ele>1036.1</ele>
        <time>2016-07-31T08:20:36Z</time>
      </trkpt>
      <trkpt lat="42.42209" lon="0.01373">
        <ele>1036.2</ele>
        <time>2016-07-31T08:20:38Z</time>
      </trkpt>
      <trkpt lat="42.42204" lon="0.01372">
        <ele>1036.6</ele>
        <time>2016-07-31T08:20:40Z</time>
      </trkpt>
      <trkpt lat="42.422" lon="0.0137">
        <ele>1036.9</ele>
        <time>2016-07-31T08:20:42Z</time>
      </trkpt>
      <trkpt lat="42.42196" lon="0.01368">
        <ele>1037.3</ele>
        <time>2016-07-31T08:20:44Z</time>
      </trkpt>
      <trkpt lat="42.42191" lon="0.01367">
        <ele>1037.7</ele>
        <time>2016-07-31T08:20:46Z</time>
      </trkpt>
      <trkpt lat="42.42187" lon="0.01366">
        <ele>1038</ele>
        <time>2016-07-31T08:20:48Z</time>
      </trkpt>
      <trkpt lat="42.42182" lon="0.01367">
        <ele>1038.3</ele>
        <time>2016-07-31T08:20:50Z</time>
      </trkpt>
      <trkpt lat="42.42177" lon="0.01367">
        <ele>1038.6</ele>
        <time>2016-07-31T08:20:52Z</time>
      </trkpt>
      <trkpt lat="42.42173" lon="0.01367">
        <ele>1038.8</ele>
        <time>2016-07-31T08:20:54Z</time>
      </trkpt>
      <trkpt lat="42.42168" lon="0.01368">
        <ele>1039</ele>
        <time>2016-07-31T08:20:56Z</time>
      </trkpt>
      <trkpt lat="42.42164" lon="0.01368">
        <ele>1039.3</ele>
        <time>2016-07-31T08:20:58Z</time>
      </trkpt>
      <trkpt lat="42.42159" lon="0.01369">
        <ele>1039.4</ele>
        <time>2016-07-31T08:21:00Z</time>
      </trkpt>
      <trkpt lat="42.42155" lon="0.01371">
        <ele>1039.5</ele>
        <time>2016-07-31T08:21:02Z</time>
      </trkpt>
      <trkpt lat="42.42151" lon="0.01373">
        <ele>1039.7</ele>
        <time>2016-07-31T08:21:04Z</time>
      </trkpt>
      <trkpt lat="42.42146" lon="0.01375">
        <ele>1039.8</ele>
        <time>2016-07-31T08:21:06Z</time>
      </trkpt>
      <trkpt lat="42.42142" lon="0.01377">
        <ele>1040</ele>
        <time>2016-07-31T08:21:08Z</time>
      </trkpt>
      <trkpt lat="42.42137" lon="0.01379">
        <ele>1040.3</ele>
        <time>2016-07-31T08:21:10Z</time>
      </trkpt>
      <trkpt lat="42.42132" lon="0.01382">
        <ele>1040.6</ele>
        <time>2016-07-31T08:21:12Z</time>
      </trkpt>
      <trkpt lat="42.42127" lon="0.01384">
        <ele>1040.9</ele>
        <time>2016-07-31T08:21:14Z</time>
      </trkpt>
      <trkpt lat="42.42123" lon="0.01386">
        <ele>1041.1</ele>
        <time>2016-07-31T08:21:16Z</time>
      </trkpt>
      <trkpt lat="42.42119" lon="0.01388">
        <ele>1041.3</ele>
        <time>2016-07-31T08:21:18Z</time>
      </trkpt>
      <trkpt lat="42.42114" lon="0.0139">
        <ele>1041.6</ele>
        <time>2016-07-31T08:21:20Z</time>
      </trkpt>
      <trkpt lat="42.42109" lon="0.01392">
        <ele>1041.8</ele>
        <time>2016-07-31T08:21:22Z</time>
      </trkpt>
      <trkpt lat="42.42106" lon="0.01393">
        <ele>1042</ele>
        <time>2016-07-31T08:21:23Z</time>
      </trkpt>
      <trkpt lat="42.42104" lon="0.01395">
        <ele>1042.1</ele>
        <time>2016-07-31T08:21:24Z</time>
      </trkpt>
      <trkpt lat="42.42099" lon="0.01397">
        <ele>1042.3</ele>
        <time>2016-07-31T08:21:26Z</time>
      </trkpt>
      <trkpt lat="42.42094" lon="0.01399">
        <ele>1042.6</ele>
        <time>2016-07-31T08:21:28Z</time>
      </trkpt>
      <trkpt lat="42.4209" lon="0.01401">
        <ele>1042.8</ele>
        <time>2016-07-31T08:21:30Z</time>
      </trkpt>
      <trkpt lat="42.42085" lon="0.01401">
        <ele>1043.1</ele>
        <time>2016-07-31T08:21:32Z</time>
      </trkpt>
      <trkpt lat="42.4208" lon="0.014">
        <ele>1043.3</ele>
        <time>2016-07-31T08:21:34Z</time>
      </trkpt>
      <trkpt lat="42.42076" lon="0.014">
        <ele>1043.5</ele>
        <time>2016-07-31T08:21:36Z</time>
      </trkpt>
      <trkpt lat="42.42072" lon="0.01398">
        <ele>1043.7</ele>
        <time>2016-07-31T08:21:38Z</time>
      </trkpt>
      <trkpt lat="42.42067" lon="0.01395">
        <ele>1043.9</ele>
        <time>2016-07-31T08:21:40Z</time>
      </trkpt>
      <trkpt lat="42.42063" lon="0.01392">
        <ele>1044.1</ele>
        <time>2016-07-31T08:21:42Z</time>
      </trkpt>
      <trkpt lat="42.42059" lon="0.01389">
        <ele>1044.3</ele>
        <time>2016-07-31T08:21:44Z</time>
      </trkpt>
      <trkpt lat="42.42056" lon="0.01386">
        <ele>1044.4</ele>
        <time>2016-07-31T08:21:45Z</time>
      </trkpt>
      <trkpt lat="42.42054" lon="0.01385">
        <ele>1044.5</ele>
        <time>2016-07-31T08:21:46Z</time>
      </trkpt>
      <trkpt lat="42.42049" lon="0.01381">
        <ele>1044.7</ele>
        <time>2016-07-31T08:21:48Z</time>
      </trkpt>
      <trkpt lat="42.42045" lon="0.01377">
        <ele>1044.9</ele>
        <time>2016-07-31T08:21:50Z</time>
      </trkpt>
      <trkpt lat="42.42041" lon="0.01373">
        <ele>1044.8</ele>
        <time>2016-07-31T08:21:52Z</time>
      </trkpt>
      <trkpt lat="42.42037" lon="0.0137">
        <ele>1044.3</ele>
        <time>2016-07-31T08:21:54Z</time>
      </trkpt>
      <trkpt lat="42.42033" lon="0.01365">
        <ele>1043.7</ele>
        <time>2016-07-31T08:21:56Z</time>
      </trkpt>
      <trkpt lat="42.42029" lon="0.01362">
        <ele>1043</ele>
        <time>2016-07-31T08:21:58Z</time>
      </trkpt>
      <trkpt lat="42.42025" lon="0.01358">
        <ele>1042.3</ele>
        <time>2016-07-31T08:22:00Z</time>
      </trkpt>
      <trkpt lat="42.42021" lon="0.01355">
        <ele>1041.5</ele>
        <time>2016-07-31T08:22:02Z</time>
      </trkpt>
      <trkpt lat="42.42017" lon="0.01355">
        <ele>1040.6</ele>
        <time>2016-07-31T08:22:04Z</time>
      </trkpt>
      <trkpt lat="42.42014" lon="0.01358">
        <ele>1039.8</ele>
        <time>2016-07-31T08:22:06Z</time>
      </trkpt>
      <trkpt lat="42.42011" lon="0.01362">
        <ele>1039.2</ele>
        <time>2016-07-31T08:22:08Z</time>
      </trkpt>
      <trkpt lat="42.42009" lon="0.01367">
        <ele>1038.6</ele>
        <time>2016-07-31T08:22:10Z</time>
      </trkpt>
      <trkpt lat="42.42007" lon="0.01373">
        <ele>1037.9</ele>
        <time>2016-07-31T08:22:12Z</time>
      </trkpt>
      <trkpt lat="42.42005" lon="0.01376">
        <ele>1037.7</ele>
        <time>2016-07-31T08:22:13Z</time>
      </trkpt>
      <trkpt lat="42.42004" lon="0.0138">
        <ele>1037.6</ele>
        <time>2016-07-31T08:22:14Z</time>
      </trkpt>
      <trkpt lat="42.42001" lon="0.01386">
        <ele>1037.5</ele>
        <time>2016-07-31T08:22:16Z</time>
      </trkpt>
      <trkpt lat="42.42" lon="0.01389">
        <ele>1037.4</ele>
        <time>2016-07-31T08:22:17Z</time>
      </trkpt>
      <trkpt lat="42.41998" lon="0.01392">
        <ele>1037.4</ele>
        <time>2016-07-31T08:22:18Z</time>
      </trkpt>
      <trkpt lat="42.41997" lon="0.01396">
        <ele>1037.4</ele>
        <time>2016-07-31T08:22:19Z</time>
      </trkpt>
      <trkpt lat="42.41996" lon="0.014">
        <ele>1037.5</ele>
        <time>2016-07-31T08:22:20Z</time>
      </trkpt>
      <trkpt lat="42.41995" lon="0.01403">
        <ele>1037.7</ele>
        <time>2016-07-31T08:22:21Z</time>
      </trkpt>
      <trkpt lat="42.41994" lon="0.01407">
        <ele>1037.8</ele>
        <time>2016-07-31T08:22:22Z</time>
      </trkpt>
      <trkpt lat="42.41993" lon="0.01411">
        <ele>1038</ele>
        <time>2016-07-31T08:22:23Z</time>
      </trkpt>
      <trkpt lat="42.41992" lon="0.01415">
        <ele>1038.2</ele>
        <time>2016-07-31T08:22:24Z</time>
      </trkpt>
      <trkpt lat="42.41992" lon="0.01419">
        <ele>1038.4</ele>
        <time>2016-07-31T08:22:25Z</time>
      </trkpt>
      <trkpt lat="42.41991" lon="0.01423">
        <ele>1038.7</ele>
        <time>2016-07-31T08:22:26Z</time>
      </trkpt>
      <trkpt lat="42.4199" lon="0.01427">
        <ele>1039</ele>
        <time>2016-07-31T08:22:27Z</time>
      </trkpt>
      <trkpt lat="42.4199" lon="0.01432">
        <ele>1039.3</ele>
        <time>2016-07-31T08:22:28Z</time>
      </trkpt>
      <trkpt lat="42.41989" lon="0.01436">
        <ele>1039.6</ele>
        <time>2016-07-31T08:22:29Z</time>
      </trkpt>
      <trkpt lat="42.41988" lon="0.0144">
        <ele>1039.8</ele>
        <time>2016-07-31T08:22:30Z</time>
      </trkpt>
      <trkpt lat="42.41987" lon="0.01447">
        <ele>1040.3</ele>
        <time>2016-07-31T08:22:32Z</time>
      </trkpt>
      <trkpt lat="42.41986" lon="0.0145">
        <ele>1040.6</ele>
        <time>2016-07-31T08:22:33Z</time>
      </trkpt>
      <trkpt lat="42.41985" lon="0.01455">
        <ele>1040.9</ele>
        <time>2016-07-31T08:22:34Z</time>
      </trkpt>
      <trkpt lat="42.41985" lon="0.01459">
        <ele>1041.2</ele>
        <time>2016-07-31T08:22:35Z</time>
      </trkpt>
      <trkpt lat="42.41984" lon="0.01463">
        <ele>1041.5</ele>
        <time>2016-07-31T08:22:36Z</time>
      </trkpt>
      <trkpt lat="42.41984" lon="0.01467">
        <ele>1041.8</ele>
        <time>2016-07-31T08:22:37Z</time>
      </trkpt>
      <trkpt lat="42.41983" lon="0.01471">
        <ele>1042.1</ele>
        <time>2016-07-31T08:22:38Z</time>
      </trkpt>
      <trkpt lat="42.41983" lon="0.01474">
        <ele>1042.3</ele>
        <time>2016-07-31T08:22:39Z</time>
      </trkpt>
      <trkpt lat="42.41982" lon="0.01478">
        <ele>1042.6</ele>
        <time>2016-07-31T08:22:40Z</time>
      </trkpt>
      <trkpt lat="42.41982" lon="0.01482">
        <ele>1042.8</ele>
        <time>2016-07-31T08:22:41Z</time>
      </trkpt>
      <trkpt lat="42.41981" lon="0.01488">
        <ele>1043.4</ele>
        <time>2016-07-31T08:22:43Z</time>
      </trkpt>
      <trkpt lat="42.41981" lon="0.01492">
        <ele>1043.7</ele>
        <time>2016-07-31T08:22:44Z</time>
      </trkpt>
      <trkpt lat="42.41981" lon="0.01496">
        <ele>1044</ele>
        <time>2016-07-31T08:22:45Z</time>
      </trkpt>
      <trkpt lat="42.4198" lon="0.01501">
        <ele>1044.3</ele>
        <time>2016-07-31T08:22:46Z</time>
      </trkpt>
      <trkpt lat="42.41979" lon="0.01505">
        <ele>1044.7</ele>
        <time>2016-07-31T08:22:47Z</time>
      </trkpt>
      <trkpt lat="42.41979" lon="0.01509">
        <ele>1045</ele>
        <time>2016-07-31T08:22:48Z</time>
      </trkpt>
      <trkpt lat="42.41978" lon="0.01514">
        <ele>1045.4</ele>
        <time>2016-07-31T08:22:49Z</time>
      </trkpt>
      <trkpt lat="42.41978" lon="0.01518">
        <ele>1045.8</ele>
        <time>2016-07-31T08:22:50Z</time>
      </trkpt>
      <trkpt lat="42.41977" lon="0.01523">
        <ele>1046.2</ele>
        <time>2016-07-31T08:22:51Z</time>
      </trkpt>
      <trkpt lat="42.41976" lon="0.01529">
        <ele>1046.7</ele>
        <time>2016-07-31T08:22:52Z</time>
      </trkpt>
      <trkpt lat="42.41976" lon="0.01534">
        <ele>1047.1</ele>
        <time>2016-07-31T08:22:53Z</time>
      </trkpt>
      <trkpt lat="42.41975" lon="0.01539">
        <ele>1047.6</ele>
        <time>2016-07-31T08:22:54Z</time>
      </trkpt>
      <trkpt lat="42.41975" lon="0.01545">
        <ele>1047.8</ele>
        <time>2016-07-31T08:22:55Z</time>
      </trkpt>
      <trkpt lat="42.41974" lon="0.0155">
        <ele>1047.7</ele>
        <time>2016-07-31T08:22:56Z</time>
      </trkpt>
      <trkpt lat="42.41974" lon="0.01555">
        <ele>1047.6</ele>
        <time>2016-07-31T08:22:57Z</time>
      </trkpt>
      <trkpt lat="42.41974" lon="0.01561">
        <ele>1047.6</ele>
        <time>2016-07-31T08:22:58Z</time>
      </trkpt>
      <trkpt lat="42.41974" lon="0.01567">
        <ele>1047.5</ele>
        <time>2016-07-31T08:22:59Z</time>
      </trkpt>
      <trkpt lat="42.41974" lon="0.01573">
        <ele>1047.4</ele>
        <time>2016-07-31T08:23:00Z</time>
      </trkpt>
      <trkpt lat="42.41974" lon="0.01579">
        <ele>1047.4</ele>
        <time>2016-07-31T08:23:01Z</time>
      </trkpt>
      <trkpt lat="42.41974" lon="0.01586">
        <ele>1047.3</ele>
        <time>2016-07-31T08:23:02Z</time>
      </trkpt>
      <trkpt lat="42.41974" lon="0.0159">
        <ele>1047.2</ele>
        <time>2016-07-31T08:23:03Z</time>
      </trkpt>
      <trkpt lat="42.41974" lon="0.01595">
        <ele>1047.2</ele>
        <time>2016-07-31T08:23:04Z</time>
      </trkpt>
      <trkpt lat="42.41974" lon="0.01601">
        <ele>1047.1</ele>
        <time>2016-07-31T08:23:05Z</time>
      </trkpt>
      <trkpt lat="42.41974" lon="0.01607">
        <ele>1047</ele>
        <time>2016-07-31T08:23:06Z</time>
      </trkpt>
      <trkpt lat="42.41974" lon="0.01612">
        <ele>1047</ele>
        <time>2016-07-31T08:23:07Z</time>
      </trkpt>
      <trkpt lat="42.41974" lon="0.01617">
        <ele>1046.9</ele>
        <time>2016-07-31T08:23:08Z</time>
      </trkpt>
      <trkpt lat="42.41974" lon="0.01623">
        <ele>1046.8</ele>
        <time>2016-07-31T08:23:09Z</time>
      </trkpt>
      <trkpt lat="42.41973" lon="0.01629">
        <ele>1046.9</ele>
        <time>2016-07-31T08:23:10Z</time>
      </trkpt>
      <trkpt lat="42.41973" lon="0.01635">
        <ele>1046.9</ele>
        <time>2016-07-31T08:23:11Z</time>
      </trkpt>
      <trkpt lat="42.41973" lon="0.0164">
        <ele>1046.9</ele>
        <time>2016-07-31T08:23:12Z</time>
      </trkpt>
      <trkpt lat="42.41973" lon="0.01646">
        <ele>1047</ele>
        <time>2016-07-31T08:23:13Z</time>
      </trkpt>
      <trkpt lat="42.41973" lon="0.01652">
        <ele>1047</ele>
        <time>2016-07-31T08:23:14Z</time>
      </trkpt>
      <trkpt lat="42.41974" lon="0.01658">
        <ele>1047</ele>
        <time>2016-07-31T08:23:15Z</time>
      </trkpt>
      <trkpt lat="42.41974" lon="0.01663">
        <ele>1047.1</ele>
        <time>2016-07-31T08:23:16Z</time>
      </trkpt>
      <trkpt lat="42.41975" lon="0.01669">
        <ele>1047.1</ele>
        <time>2016-07-31T08:23:17Z</time>
      </trkpt>
      <trkpt lat="42.41976" lon="0.01674">
        <ele>1047.2</ele>
        <time>2016-07-31T08:23:18Z</time>
      </trkpt>
      <trkpt lat="42.41977" lon="0.01679">
        <ele>1047.2</ele>
        <time>2016-07-31T08:23:19Z</time>
      </trkpt>
      <trkpt lat="42.41978" lon="0.01684">
        <ele>1047.3</ele>
        <time>2016-07-31T08:23:20Z</time>
      </trkpt>
      <trkpt lat="42.4198" lon="0.01689">
        <ele>1047.3</ele>
        <time>2016-07-31T08:23:21Z</time>
      </trkpt>
      <trkpt lat="42.41982" lon="0.01694">
        <ele>1047.4</ele>
        <time>2016-07-31T08:23:22Z</time>
      </trkpt>
      <trkpt lat="42.41984" lon="0.01699">
        <ele>1047.5</ele>
        <time>2016-07-31T08:23:23Z</time>
      </trkpt>
      <trkpt lat="42.41986" lon="0.01703">
        <ele>1047.6</ele>
        <time>2016-07-31T08:23:24Z</time>
      </trkpt>
      <trkpt lat="42.41989" lon="0.01708">
        <ele>1047.7</ele>
        <time>2016-07-31T08:23:25Z</time>
      </trkpt>
      <trkpt lat="42.41991" lon="0.01712">
        <ele>1047.8</ele>
        <time>2016-07-31T08:23:26Z</time>
      </trkpt>
      <trkpt lat="42.41992" lon="0.01716">
        <ele>1047.9</ele>
        <time>2016-07-31T08:23:27Z</time>
      </trkpt>
      <trkpt lat="42.41995" lon="0.0172">
        <ele>1047.9</ele>
        <time>2016-07-31T08:23:28Z</time>
      </trkpt>
      <trkpt lat="42.41997" lon="0.01724">
        <ele>1048</ele>
        <time>2016-07-31T08:23:29Z</time>
      </trkpt>
      <trkpt lat="42.41999" lon="0.01727">
        <ele>1048.1</ele>
        <time>2016-07-31T08:23:30Z</time>
      </trkpt>
      <trkpt lat="42.42002" lon="0.01731">
        <ele>1048.2</ele>
        <time>2016-07-31T08:23:31Z</time>
      </trkpt>
      <trkpt lat="42.42004" lon="0.01734">
        <ele>1048.3</ele>
        <time>2016-07-31T08:23:32Z</time>
      </trkpt>
      <trkpt lat="42.42006" lon="0.01737">
        <ele>1048.4</ele>
        <time>2016-07-31T08:23:33Z</time>
      </trkpt>
      <trkpt lat="42.42009" lon="0.0174">
        <ele>1048.4</ele>
        <time>2016-07-31T08:23:34Z</time>
      </trkpt>
      <trkpt lat="42.42011" lon="0.01742">
        <ele>1048.5</ele>
        <time>2016-07-31T08:23:35Z</time>
      </trkpt>
      <trkpt lat="42.42013" lon="0.01745">
        <ele>1048.6</ele>
        <time>2016-07-31T08:23:36Z</time>
      </trkpt>
      <trkpt lat="42.42016" lon="0.0175">
        <ele>1048.7</ele>
        <time>2016-07-31T08:23:38Z</time>
      </trkpt>
      <trkpt lat="42.42017" lon="0.01754">
        <ele>1048.8</ele>
        <time>2016-07-31T08:23:39Z</time>
      </trkpt>
      <trkpt lat="42.42019" lon="0.01757">
        <ele>1048.9</ele>
        <time>2016-07-31T08:23:40Z</time>
      </trkpt>
      <trkpt lat="42.4202" lon="0.0176">
        <ele>1048.9</ele>
        <time>2016-07-31T08:23:41Z</time>
      </trkpt>
      <trkpt lat="42.42021" lon="0.01764">
        <ele>1049</ele>
        <time>2016-07-31T08:23:42Z</time>
      </trkpt>
      <trkpt lat="42.42022" lon="0.01768">
        <ele>1049.1</ele>
        <time>2016-07-31T08:23:43Z</time>
      </trkpt>
      <trkpt lat="42.42023" lon="0.01772">
        <ele>1049.1</ele>
        <time>2016-07-31T08:23:44Z</time>
      </trkpt>
      <trkpt lat="42.42023" lon="0.01775">
        <ele>1049.2</ele>
        <time>2016-07-31T08:23:45Z</time>
      </trkpt>
      <trkpt lat="42.42024" lon="0.01779">
        <ele>1049.2</ele>
        <time>2016-07-31T08:23:46Z</time>
      </trkpt>
      <trkpt lat="42.42025" lon="0.01783">
        <ele>1049.3</ele>
        <time>2016-07-31T08:23:47Z</time>
      </trkpt>
      <trkpt lat="42.42026" lon="0.01787">
        <ele>1049.4</ele>
        <time>2016-07-31T08:23:48Z</time>
      </trkpt>
      <trkpt lat="42.42027" lon="0.0179">
        <ele>1049.4</ele>
        <time>2016-07-31T08:23:49Z</time>
      </trkpt>
      <trkpt lat="42.42028" lon="0.01794">
        <ele>1049.6</ele>
        <time>2016-07-31T08:23:50Z</time>
      </trkpt>
      <trkpt lat="42.42028" lon="0.01798">
        <ele>1049.8</ele>
        <time>2016-07-31T08:23:51Z</time>
      </trkpt>
      <trkpt lat="42.42029" lon="0.01801">
        <ele>1050.1</ele>
        <time>2016-07-31T08:23:52Z</time>
      </trkpt>
      <trkpt lat="42.4203" lon="0.01805">
        <ele>1050.3</ele>
        <time>2016-07-31T08:23:53Z</time>
      </trkpt>
      <trkpt lat="42.42031" lon="0.01812">
        <ele>1050.7</ele>
        <time>2016-07-31T08:23:55Z</time>
      </trkpt>
      <trkpt lat="42.42032" lon="0.01818">
        <ele>1051.1</ele>
        <time>2016-07-31T08:23:57Z</time>
      </trkpt>
      <trkpt lat="42.42033" lon="0.01824">
        <ele>1051.4</ele>
        <time>2016-07-31T08:23:59Z</time>
      </trkpt>
      <trkpt lat="42.42034" lon="0.0183">
        <ele>1051.8</ele>
        <time>2016-07-31T08:24:01Z</time>
      </trkpt>
      <trkpt lat="42.42034" lon="0.01836">
        <ele>1052.1</ele>
        <time>2016-07-31T08:24:03Z</time>
      </trkpt>
      <trkpt lat="42.42034" lon="0.01841">
        <ele>1052.5</ele>
        <time>2016-07-31T08:24:05Z</time>
      </trkpt>
      <trkpt lat="42.42033" lon="0.01847">
        <ele>1052.7</ele>
        <time>2016-07-31T08:24:07Z</time>
      </trkpt>
      <trkpt lat="42.4203" lon="0.01853">
        <ele>1052.9</ele>
        <time>2016-07-31T08:24:09Z</time>
      </trkpt>
      <trkpt lat="42.42028" lon="0.01859">
        <ele>1053</ele>
        <time>2016-07-31T08:24:11Z</time>
      </trkpt>
      <trkpt lat="42.42025" lon="0.01864">
        <ele>1053.1</ele>
        <time>2016-07-31T08:24:13Z</time>
      </trkpt>
      <trkpt lat="42.42022" lon="0.01869">
        <ele>1053.1</ele>
        <time>2016-07-31T08:24:15Z</time>
      </trkpt>
      <trkpt lat="42.42019" lon="0.01874">
        <ele>1053.1</ele>
        <time>2016-07-31T08:24:17Z</time>
      </trkpt>
      <trkpt lat="42.42016" lon="0.01879">
        <ele>1053.2</ele>
        <time>2016-07-31T08:24:19Z</time>
      </trkpt>
      <trkpt lat="42.42013" lon="0.01882">
        <ele>1053.3</ele>
        <time>2016-07-31T08:24:21Z</time>
      </trkpt>
      <trkpt lat="42.42009" lon="0.01887">
        <ele>1053.4</ele>
        <time>2016-07-31T08:24:23Z</time>
      </trkpt>
      <trkpt lat="42.42006" lon="0.01891">
        <ele>1053.5</ele>
        <time>2016-07-31T08:24:25Z</time>
      </trkpt>
      <trkpt lat="42.42003" lon="0.01894">
        <ele>1053.6</ele>
        <time>2016-07-31T08:24:27Z</time>
      </trkpt>
      <trkpt lat="42.42" lon="0.01897">
        <ele>1053.6</ele>
        <time>2016-07-31T08:24:29Z</time>
      </trkpt>
      <trkpt lat="42.41996" lon="0.01899">
        <ele>1053.5</ele>
        <time>2016-07-31T08:24:31Z</time>
      </trkpt>
      <trkpt lat="42.41993" lon="0.01902">
        <ele>1053.5</ele>
        <time>2016-07-31T08:24:33Z</time>
      </trkpt>
      <trkpt lat="42.4199" lon="0.01904">
        <ele>1053.4</ele>
        <time>2016-07-31T08:24:35Z</time>
      </trkpt>
      <trkpt lat="42.41988" lon="0.01907">
        <ele>1053.5</ele>
        <time>2016-07-31T08:24:37Z</time>
      </trkpt>
      <trkpt lat="42.41985" lon="0.0191">
        <ele>1053.6</ele>
        <time>2016-07-31T08:24:39Z</time>
      </trkpt>
      <trkpt lat="42.41982" lon="0.01913">
        <ele>1053.7</ele>
        <time>2016-07-31T08:24:41Z</time>
      </trkpt>
      <trkpt lat="42.41979" lon="0.01917">
        <ele>1053.8</ele>
        <time>2016-07-31T08:24:43Z</time>
      </trkpt>
      <trkpt lat="42.41976" lon="0.01921">
        <ele>1053.9</ele>
        <time>2016-07-31T08:24:45Z</time>
      </trkpt>
      <trkpt lat="42.41973" lon="0.01924">
        <ele>1053.9</ele>
        <time>2016-07-31T08:24:47Z</time>
      </trkpt>
      <trkpt lat="42.4197" lon="0.01927">
        <ele>1054</ele>
        <time>2016-07-31T08:24:49Z</time>
      </trkpt>
      <trkpt lat="42.41967" lon="0.01931">
        <ele>1054.2</ele>
        <time>2016-07-31T08:24:51Z</time>
      </trkpt>
      <trkpt lat="42.41965" lon="0.01936">
        <ele>1054.4</ele>
        <time>2016-07-31T08:24:53Z</time>
      </trkpt>
      <trkpt lat="42.41962" lon="0.0194">
        <ele>1054.6</ele>
        <time>2016-07-31T08:24:55Z</time>
      </trkpt>
      <trkpt lat="42.4196" lon="0.01945">
        <ele>1054.9</ele>
        <time>2016-07-31T08:24:57Z</time>
      </trkpt>
      <trkpt lat="42.41959" lon="0.01951">
        <ele>1055.3</ele>
        <time>2016-07-31T08:24:59Z</time>
      </trkpt>
      <trkpt lat="42.41959" lon="0.01957">
        <ele>1055.9</ele>
        <time>2016-07-31T08:25:01Z</time>
      </trkpt>
      <trkpt lat="42.41961" lon="0.01962">
        <ele>1056.5</ele>
        <time>2016-07-31T08:25:03Z</time>
      </trkpt>
      <trkpt lat="42.41964" lon="0.01966">
        <ele>1057.1</ele>
        <time>2016-07-31T08:25:05Z</time>
      </trkpt>
      <trkpt lat="42.41967" lon="0.01968">
        <ele>1057.6</ele>
        <time>2016-07-31T08:25:07Z</time>
      </trkpt>
      <trkpt lat="42.41971" lon="0.0197">
        <ele>1058.1</ele>
        <time>2016-07-31T08:25:09Z</time>
      </trkpt>
      <trkpt lat="42.41975" lon="0.01971">
        <ele>1058.6</ele>
        <time>2016-07-31T08:25:11Z</time>
      </trkpt>
      <trkpt lat="42.41979" lon="0.01973">
        <ele>1059</ele>
        <time>2016-07-31T08:25:13Z</time>
      </trkpt>
      <trkpt lat="42.41982" lon="0.01975">
        <ele>1059.5</ele>
        <time>2016-07-31T08:25:15Z</time>
      </trkpt>
      <trkpt lat="42.41985" lon="0.01979">
        <ele>1060.1</ele>
        <time>2016-07-31T08:25:17Z</time>
      </trkpt>
      <trkpt lat="42.41988" lon="0.01982">
        <ele>1060.7</ele>
        <time>2016-07-31T08:25:19Z</time>
      </trkpt>
      <trkpt lat="42.41991" lon="0.01985">
        <ele>1061.2</ele>
        <time>2016-07-31T08:25:21Z</time>
      </trkpt>
      <trkpt lat="42.41993" lon="0.01989">
        <ele>1061.8</ele>
        <time>2016-07-31T08:25:23Z</time>
      </trkpt>
      <trkpt lat="42.41995" lon="0.01993">
        <ele>1062.3</ele>
        <time>2016-07-31T08:25:25Z</time>
      </trkpt>
      <trkpt lat="42.41999" lon="0.01995">
        <ele>1062.9</ele>
        <time>2016-07-31T08:25:27Z</time>
      </trkpt>
      <trkpt lat="42.42004" lon="0.01996">
        <ele>1063.4</ele>
        <time>2016-07-31T08:25:29Z</time>
      </trkpt>
      <trkpt lat="42.42008" lon="0.01994">
        <ele>1063.7</ele>
        <time>2016-07-31T08:25:31Z</time>
      </trkpt>
      <trkpt lat="42.42012" lon="0.01992">
        <ele>1063.8</ele>
        <time>2016-07-31T08:25:33Z</time>
      </trkpt>
      <trkpt lat="42.42016" lon="0.01989">
        <ele>1063.9</ele>
        <time>2016-07-31T08:25:35Z</time>
      </trkpt>
      <trkpt lat="42.42019" lon="0.01985">
        <ele>1063.8</ele>
        <time>2016-07-31T08:25:37Z</time>
      </trkpt>
      <trkpt lat="42.42022" lon="0.01982">
        <ele>1063.8</ele>
        <time>2016-07-31T08:25:39Z</time>
      </trkpt>
      <trkpt lat="42.42027" lon="0.01981">
        <ele>1064.2</ele>
        <time>2016-07-31T08:25:41Z</time>
      </trkpt>
      <trkpt lat="42.42032" lon="0.0198">
        <ele>1064.4</ele>
        <time>2016-07-31T08:25:43Z</time>
      </trkpt>
      <trkpt lat="42.42036" lon="0.01978">
        <ele>1064.6</ele>
        <time>2016-07-31T08:25:45Z</time>
      </trkpt>
      <trkpt lat="42.4204" lon="0.01975">
        <ele>1064.7</ele>
        <time>2016-07-31T08:25:47Z</time>
      </trkpt>
      <trkpt lat="42.42044" lon="0.01974">
        <ele>1064.9</ele>
        <time>2016-07-31T08:25:49Z</time>
      </trkpt>
      <trkpt lat="42.42048" lon="0.01971">
        <ele>1065.1</ele>
        <time>2016-07-31T08:25:51Z</time>
      </trkpt>
      <trkpt lat="42.42052" lon="0.0197">
        <ele>1065.3</ele>
        <time>2016-07-31T08:25:53Z</time>
      </trkpt>
      <trkpt lat="42.42055" lon="0.01968">
        <ele>1065.5</ele>
        <time>2016-07-31T08:25:55Z</time>
      </trkpt>
      <trkpt lat="42.42059" lon="0.01966">
        <ele>1065.7</ele>
        <time>2016-07-31T08:25:57Z</time>
      </trkpt>
      <trkpt lat="42.42063" lon="0.01964">
        <ele>1065.8</ele>
        <time>2016-07-31T08:25:59Z</time>
      </trkpt>
      <trkpt lat="42.42067" lon="0.01962">
        <ele>1066.1</ele>
        <time>2016-07-31T08:26:01Z</time>
      </trkpt>
      <trkpt lat="42.42072" lon="0.01959">
        <ele>1066.3</ele>
        <time>2016-07-31T08:26:04Z</time>
      </trkpt>
      <trkpt lat="42.42075" lon="0.01956">
        <ele>1066.4</ele>
        <time>2016-07-31T08:26:06Z</time>
      </trkpt>
      <trkpt lat="42.42079" lon="0.01954">
        <ele>1066.5</ele>
        <time>2016-07-31T08:26:08Z</time>
      </trkpt>
      <trkpt lat="42.42083" lon="0.01952">
        <ele>1066.8</ele>
        <time>2016-07-31T08:26:10Z</time>
      </trkpt>
      <trkpt lat="42.42088" lon="0.0195">
        <ele>1067</ele>
        <time>2016-07-31T08:26:12Z</time>
      </trkpt>
      <trkpt lat="42.42092" lon="0.01948">
        <ele>1067.2</ele>
        <time>2016-07-31T08:26:14Z</time>
      </trkpt>
      <trkpt lat="42.42095" lon="0.01946">
        <ele>1067.3</ele>
        <time>2016-07-31T08:26:16Z</time>
      </trkpt>
      <trkpt lat="42.42099" lon="0.01944">
        <ele>1067.5</ele>
        <time>2016-07-31T08:26:18Z</time>
      </trkpt>
      <trkpt lat="42.42103" lon="0.01943">
        <ele>1067.7</ele>
        <time>2016-07-31T08:26:20Z</time>
      </trkpt>
      <trkpt lat="42.42107" lon="0.01943">
        <ele>1068.2</ele>
        <time>2016-07-31T08:26:22Z</time>
      </trkpt>
      <trkpt lat="42.42111" lon="0.01945">
        <ele>1068.8</ele>
        <time>2016-07-31T08:26:24Z</time>
      </trkpt>
      <trkpt lat="42.42113" lon="0.0195">
        <ele>1069.6</ele>
        <time>2016-07-31T08:26:26Z</time>
      </trkpt>
      <trkpt lat="42.42115" lon="0.01956">
        <ele>1070.6</ele>
        <time>2016-07-31T08:26:28Z</time>
      </trkpt>
      <trkpt lat="42.42115" lon="0.0196">
        <ele>1071.1</ele>
        <time>2016-07-31T08:26:29Z</time>
      </trkpt>
      <trkpt lat="42.42116" lon="0.01964">
        <ele>1071.5</ele>
        <time>2016-07-31T08:26:30Z</time>
      </trkpt>
      <trkpt lat="42.42116" lon="0.01968">
        <ele>1071.9</ele>
        <time>2016-07-31T08:26:31Z</time>
      </trkpt>
      <trkpt lat="42.42117" lon="0.01973">
        <ele>1072.4</ele>
        <time>2016-07-31T08:26:32Z</time>
      </trkpt>
      <trkpt lat="42.42117" lon="0.01978">
        <ele>1072.9</ele>
        <time>2016-07-31T08:26:33Z</time>
      </trkpt>
      <trkpt lat="42.42118" lon="0.01983">
        <ele>1073.4</ele>
        <time>2016-07-31T08:26:34Z</time>
      </trkpt>
      <trkpt lat="42.42119" lon="0.01988">
        <ele>1073.9</ele>
        <time>2016-07-31T08:26:35Z</time>
      </trkpt>
      <trkpt lat="42.4212" lon="0.01993">
        <ele>1074.4</ele>
        <time>2016-07-31T08:26:36Z</time>
      </trkpt>
      <trkpt lat="42.42121" lon="0.01998">
        <ele>1074.9</ele>
        <time>2016-07-31T08:26:37Z</time>
      </trkpt>
      <trkpt lat="42.42121" lon="0.02003">
        <ele>1075.4</ele>
        <time>2016-07-31T08:26:38Z</time>
      </trkpt>
      <trkpt lat="42.42122" lon="0.02007">
        <ele>1075.9</ele>
        <time>2016-07-31T08:26:39Z</time>
      </trkpt>
      <trkpt lat="42.42123" lon="0.02012">
        <ele>1076.3</ele>
        <time>2016-07-31T08:26:40Z</time>
      </trkpt>
      <trkpt lat="42.42124" lon="0.02016">
        <ele>1076.7</ele>
        <time>2016-07-31T08:26:41Z</time>
      </trkpt>
      <trkpt lat="42.42125" lon="0.0202">
        <ele>1077.2</ele>
        <time>2016-07-31T08:26:42Z</time>
      </trkpt>
      <trkpt lat="42.42126" lon="0.02024">
        <ele>1077.7</ele>
        <time>2016-07-31T08:26:43Z</time>
      </trkpt>
      <trkpt lat="42.42127" lon="0.02028">
        <ele>1078.2</ele>
        <time>2016-07-31T08:26:44Z</time>
      </trkpt>
      <trkpt lat="42.42129" lon="0.02032">
        <ele>1078.7</ele>
        <time>2016-07-31T08:26:45Z</time>
      </trkpt>
      <trkpt lat="42.4213" lon="0.02037">
        <ele>1079.3</ele>
        <time>2016-07-31T08:26:46Z</time>
      </trkpt>
      <trkpt lat="42.42131" lon="0.02041">
        <ele>1079.8</ele>
        <time>2016-07-31T08:26:47Z</time>
      </trkpt>
      <trkpt lat="42.42133" lon="0.02045">
        <ele>1080.1</ele>
        <time>2016-07-31T08:26:48Z</time>
      </trkpt>
      <trkpt lat="42.42134" lon="0.02049">
        <ele>1080.3</ele>
        <time>2016-07-31T08:26:49Z</time>
      </trkpt>
      <trkpt lat="42.42136" lon="0.02054">
        <ele>1080.5</ele>
        <time>2016-07-31T08:26:50Z</time>
      </trkpt>
      <trkpt lat="42.42138" lon="0.02058">
        <ele>1080.7</ele>
        <time>2016-07-31T08:26:51Z</time>
      </trkpt>
      <trkpt lat="42.4214" lon="0.02062">
        <ele>1080.9</ele>
        <time>2016-07-31T08:26:52Z</time>
      </trkpt>
      <trkpt lat="42.42144" lon="0.0207">
        <ele>1081.4</ele>
        <time>2016-07-31T08:26:54Z</time>
      </trkpt>
      <trkpt lat="42.42146" lon="0.02074">
        <ele>1081.6</ele>
        <time>2016-07-31T08:26:55Z</time>
      </trkpt>
      <trkpt lat="42.42148" lon="0.02078">
        <ele>1081.8</ele>
        <time>2016-07-31T08:26:56Z</time>
      </trkpt>
      <trkpt lat="42.4215" lon="0.02081">
        <ele>1082</ele>
        <time>2016-07-31T08:26:57Z</time>
      </trkpt>
      <trkpt lat="42.42151" lon="0.02085">
        <ele>1082.1</ele>
        <time>2016-07-31T08:26:58Z</time>
      </trkpt>
      <trkpt lat="42.42153" lon="0.02089">
        <ele>1082.3</ele>
        <time>2016-07-31T08:26:59Z</time>
      </trkpt>
      <trkpt lat="42.42154" lon="0.02094">
        <ele>1082.3</ele>
        <time>2016-07-31T08:27:00Z</time>
      </trkpt>
      <trkpt lat="42.42155" lon="0.02098">
        <ele>1082.4</ele>
        <time>2016-07-31T08:27:01Z</time>
      </trkpt>
      <trkpt lat="42.42156" lon="0.02102">
        <ele>1082.4</ele>
        <time>2016-07-31T08:27:02Z</time>
      </trkpt>
      <trkpt lat="42.42157" lon="0.02106">
        <ele>1082.4</ele>
        <time>2016-07-31T08:27:03Z</time>
      </trkpt>
      <trkpt lat="42.42158" lon="0.0211">
        <ele>1082.4</ele>
        <time>2016-07-31T08:27:04Z</time>
      </trkpt>
      <trkpt lat="42.42158" lon="0.02114">
        <ele>1082.4</ele>
        <time>2016-07-31T08:27:05Z</time>
      </trkpt>
      <trkpt lat="42.42159" lon="0.02117">
        <ele>1082.4</ele>
        <time>2016-07-31T08:27:06Z</time>
      </trkpt>
      <trkpt lat="42.4216" lon="0.02121">
        <ele>1082.4</ele>
        <time>2016-07-31T08:27:07Z</time>
      </trkpt>
      <trkpt lat="42.4216" lon="0.02125">
        <ele>1082.4</ele>
        <time>2016-07-31T08:27:08Z</time>
      </trkpt>
      <trkpt lat="42.4216" lon="0.02128">
        <ele>1082.6</ele>
        <time>2016-07-31T08:27:09Z</time>
      </trkpt>
      <trkpt lat="42.42161" lon="0.02132">
        <ele>1083</ele>
        <time>2016-07-31T08:27:10Z</time>
      </trkpt>
      <trkpt lat="42.42161" lon="0.02136">
        <ele>1083.3</ele>
        <time>2016-07-31T08:27:11Z</time>
      </trkpt>
      <trkpt lat="42.42162" lon="0.0214">
        <ele>1083.6</ele>
        <time>2016-07-31T08:27:12Z</time>
      </trkpt>
      <trkpt lat="42.42163" lon="0.02143">
        <ele>1083.9</ele>
        <time>2016-07-31T08:27:13Z</time>
      </trkpt>
      <trkpt lat="42.42163" lon="0.02147">
        <ele>1084.2</ele>
        <time>2016-07-31T08:27:14Z</time>
      </trkpt>
      <trkpt lat="42.42165" lon="0.02154">
        <ele>1084.8</ele>
        <time>2016-07-31T08:27:16Z</time>
      </trkpt>
      <trkpt lat="42.42166" lon="0.0216">
        <ele>1085.3</ele>
        <time>2016-07-31T08:27:18Z</time>
      </trkpt>
      <trkpt lat="42.42168" lon="0.02167">
        <ele>1085.8</ele>
        <time>2016-07-31T08:27:20Z</time>
      </trkpt>
      <trkpt lat="42.42169" lon="0.02173">
        <ele>1086.2</ele>
        <time>2016-07-31T08:27:22Z</time>
      </trkpt>
      <trkpt lat="42.4217" lon="0.02179">
        <ele>1086.7</ele>
        <time>2016-07-31T08:27:24Z</time>
      </trkpt>
      <trkpt lat="42.42171" lon="0.02185">
        <ele>1087</ele>
        <time>2016-07-31T08:27:26Z</time>
      </trkpt>
      <trkpt lat="42.42172" lon="0.0219">
        <ele>1087.4</ele>
        <time>2016-07-31T08:27:28Z</time>
      </trkpt>
      <trkpt lat="42.42173" lon="0.02196">
        <ele>1087.7</ele>
        <time>2016-07-31T08:27:30Z</time>
      </trkpt>
      <trkpt lat="42.42174" lon="0.02201">
        <ele>1088</ele>
        <time>2016-07-31T08:27:32Z</time>
      </trkpt>
      <trkpt lat="42.42175" lon="0.02207">
        <ele>1088.3</ele>
        <time>2016-07-31T08:27:34Z</time>
      </trkpt>
      <trkpt lat="42.42176" lon="0.02212">
        <ele>1088.7</ele>
        <time>2016-07-31T08:27:36Z</time>
      </trkpt>
      <trkpt lat="42.42177" lon="0.02218">
        <ele>1089.1</ele>
        <time>2016-07-31T08:27:38Z</time>
      </trkpt>
      <trkpt lat="42.42178" lon="0.02223">
        <ele>1089.5</ele>
        <time>2016-07-31T08:27:40Z</time>
      </trkpt>
      <trkpt lat="42.42179" lon="0.02228">
        <ele>1090</ele>
        <time>2016-07-31T08:27:42Z</time>
      </trkpt>
      <trkpt lat="42.4218" lon="0.02234">
        <ele>1090.4</ele>
        <time>2016-07-31T08:27:44Z</time>
      </trkpt>
      <trkpt lat="42.42181" lon="0.02239">
        <ele>1090.7</ele>
        <time>2016-07-31T08:27:46Z</time>
      </trkpt>
      <trkpt lat="42.42182" lon="0.02244">
        <ele>1091.1</ele>
        <time>2016-07-31T08:27:48Z</time>
      </trkpt>
      <trkpt lat="42.42183" lon="0.02249">
        <ele>1091.5</ele>
        <time>2016-07-31T08:27:50Z</time>
      </trkpt>
      <trkpt lat="42.42184" lon="0.02254">
        <ele>1091.9</ele>
        <time>2016-07-31T08:27:52Z</time>
      </trkpt>
      <trkpt lat="42.42185" lon="0.02259">
        <ele>1092.2</ele>
        <time>2016-07-31T08:27:54Z</time>
      </trkpt>
      <trkpt lat="42.42186" lon="0.02264">
        <ele>1092.6</ele>
        <time>2016-07-31T08:27:56Z</time>
      </trkpt>
      <trkpt lat="42.42187" lon="0.02268">
        <ele>1092.9</ele>
        <time>2016-07-31T08:27:58Z</time>
      </trkpt>
      <trkpt lat="42.42188" lon="0.02273">
        <ele>1093.3</ele>
        <time>2016-07-31T08:28:00Z</time>
      </trkpt>
      <trkpt lat="42.42189" lon="0.02278">
        <ele>1093.6</ele>
        <time>2016-07-31T08:28:02Z</time>
      </trkpt>
      <trkpt lat="42.4219" lon="0.02282">
        <ele>1093.9</ele>
        <time>2016-07-31T08:28:04Z</time>
      </trkpt>
      <trkpt lat="42.42192" lon="0.02287">
        <ele>1094.2</ele>
        <time>2016-07-31T08:28:06Z</time>
      </trkpt>
      <trkpt lat="42.42193" lon="0.02291">
        <ele>1094.5</ele>
        <time>2016-07-31T08:28:08Z</time>
      </trkpt>
      <trkpt lat="42.42194" lon="0.02296">
        <ele>1094.9</ele>
        <time>2016-07-31T08:28:10Z</time>
      </trkpt>
      <trkpt lat="42.42195" lon="0.02301">
        <ele>1095.1</ele>
        <time>2016-07-31T08:28:12Z</time>
      </trkpt>
      <trkpt lat="42.42197" lon="0.02305">
        <ele>1095.4</ele>
        <time>2016-07-31T08:28:14Z</time>
      </trkpt>
      <trkpt lat="42.42198" lon="0.0231">
        <ele>1095.8</ele>
        <time>2016-07-31T08:28:16Z</time>
      </trkpt>
      <trkpt lat="42.42199" lon="0.02315">
        <ele>1096.1</ele>
        <time>2016-07-31T08:28:18Z</time>
      </trkpt>
      <trkpt lat="42.422" lon="0.02319">
        <ele>1096.4</ele>
        <time>2016-07-31T08:28:20Z</time>
      </trkpt>
      <trkpt lat="42.42202" lon="0.02323">
        <ele>1096.7</ele>
        <time>2016-07-31T08:28:22Z</time>
      </trkpt>
      <trkpt lat="42.42203" lon="0.02327">
        <ele>1097</ele>
        <time>2016-07-31T08:28:24Z</time>
      </trkpt>
      <trkpt lat="42.42205" lon="0.02331">
        <ele>1097.3</ele>
        <time>2016-07-31T08:28:26Z</time>
      </trkpt>
      <trkpt lat="42.42207" lon="0.02335">
        <ele>1097.7</ele>
        <time>2016-07-31T08:28:28Z</time>
      </trkpt>
      <trkpt lat="42.42208" lon="0.0234">
        <ele>1098.1</ele>
        <time>2016-07-31T08:28:30Z</time>
      </trkpt>
      <trkpt lat="42.42208" lon="0.02346">
        <ele>1098.6</ele>
        <time>2016-07-31T08:28:32Z</time>
      </trkpt>
      <trkpt lat="42.42209" lon="0.02352">
        <ele>1099</ele>
        <time>2016-07-31T08:28:34Z</time>
      </trkpt>
      <trkpt lat="42.4221" lon="0.02358">
        <ele>1099.5</ele>
        <time>2016-07-31T08:28:36Z</time>
      </trkpt>
      <trkpt lat="42.4221" lon="0.02364">
        <ele>1100</ele>
        <time>2016-07-31T08:28:38Z</time>
      </trkpt>
      <trkpt lat="42.4221" lon="0.0237">
        <ele>1100.5</ele>
        <time>2016-07-31T08:28:40Z</time>
      </trkpt>
      <trkpt lat="42.4221" lon="0.02376">
        <ele>1101</ele>
        <time>2016-07-31T08:28:42Z</time>
      </trkpt>
      <trkpt lat="42.4221" lon="0.02383">
        <ele>1101</ele>
        <time>2016-07-31T08:28:44Z</time>
      </trkpt>
      <trkpt lat="42.4221" lon="0.02387">
        <ele>1101.1</ele>
        <time>2016-07-31T08:28:45Z</time>
      </trkpt>
      <trkpt lat="42.42211" lon="0.02391">
        <ele>1101.1</ele>
        <time>2016-07-31T08:28:46Z</time>
      </trkpt>
      <trkpt lat="42.42211" lon="0.02394">
        <ele>1101.1</ele>
        <time>2016-07-31T08:28:47Z</time>
      </trkpt>
      <trkpt lat="42.42212" lon="0.02398">
        <ele>1101.1</ele>
        <time>2016-07-31T08:28:48Z</time>
      </trkpt>
      <trkpt lat="42.42213" lon="0.02402">
        <ele>1101.1</ele>
        <time>2016-07-31T08:28:49Z</time>
      </trkpt>
      <trkpt lat="42.42213" lon="0.02406">
        <ele>1101.1</ele>
        <time>2016-07-31T08:28:50Z</time>
      </trkpt>
      <trkpt lat="42.42214" lon="0.0241">
        <ele>1101.1</ele>
        <time>2016-07-31T08:28:51Z</time>
      </trkpt>
      <trkpt lat="42.42216" lon="0.02414">
        <ele>1101.1</ele>
        <time>2016-07-31T08:28:52Z</time>
      </trkpt>
      <trkpt lat="42.42217" lon="0.02417">
        <ele>1101.1</ele>
        <time>2016-07-31T08:28:53Z</time>
      </trkpt>
      <trkpt lat="42.42218" lon="0.02421">
        <ele>1101.1</ele>
        <time>2016-07-31T08:28:54Z</time>
      </trkpt>
      <trkpt lat="42.42219" lon="0.02425">
        <ele>1101.1</ele>
        <time>2016-07-31T08:28:55Z</time>
      </trkpt>
      <trkpt lat="42.4222" lon="0.02428">
        <ele>1101</ele>
        <time>2016-07-31T08:28:56Z</time>
      </trkpt>
      <trkpt lat="42.42222" lon="0.02432">
        <ele>1101</ele>
        <time>2016-07-31T08:28:57Z</time>
      </trkpt>
      <trkpt lat="42.42223" lon="0.02435">
        <ele>1100.9</ele>
        <time>2016-07-31T08:28:58Z</time>
      </trkpt>
      <trkpt lat="42.42225" lon="0.02438">
        <ele>1100.9</ele>
        <time>2016-07-31T08:28:59Z</time>
      </trkpt>
      <trkpt lat="42.42226" lon="0.02441">
        <ele>1100.8</ele>
        <time>2016-07-31T08:29:00Z</time>
      </trkpt>
      <trkpt lat="42.42228" lon="0.02444">
        <ele>1100.7</ele>
        <time>2016-07-31T08:29:01Z</time>
      </trkpt>
      <trkpt lat="42.4223" lon="0.02447">
        <ele>1100.6</ele>
        <time>2016-07-31T08:29:02Z</time>
      </trkpt>
      <trkpt lat="42.42231" lon="0.0245">
        <ele>1100.6</ele>
        <time>2016-07-31T08:29:03Z</time>
      </trkpt>
      <trkpt lat="42.42233" lon="0.02454">
        <ele>1100.5</ele>
        <time>2016-07-31T08:29:04Z</time>
      </trkpt>
      <trkpt lat="42.42234" lon="0.02457">
        <ele>1100.5</ele>
        <time>2016-07-31T08:29:05Z</time>
      </trkpt>
      <trkpt lat="42.42235" lon="0.02461">
        <ele>1100.4</ele>
        <time>2016-07-31T08:29:06Z</time>
      </trkpt>
      <trkpt lat="42.42237" lon="0.02464">
        <ele>1100.4</ele>
        <time>2016-07-31T08:29:07Z</time>
      </trkpt>
      <trkpt lat="42.42238" lon="0.02468">
        <ele>1100.4</ele>
        <time>2016-07-31T08:29:08Z</time>
      </trkpt>
      <trkpt lat="42.42239" lon="0.02472">
        <ele>1100.5</ele>
        <time>2016-07-31T08:29:09Z</time>
      </trkpt>
      <trkpt lat="42.42239" lon="0.02476">
        <ele>1100.5</ele>
        <time>2016-07-31T08:29:10Z</time>
      </trkpt>
      <trkpt lat="42.4224" lon="0.02479">
        <ele>1100.6</ele>
        <time>2016-07-31T08:29:11Z</time>
      </trkpt>
      <trkpt lat="42.42241" lon="0.02483">
        <ele>1100.6</ele>
        <time>2016-07-31T08:29:12Z</time>
      </trkpt>
      <trkpt lat="42.42242" lon="0.02486">
        <ele>1100.7</ele>
        <time>2016-07-31T08:29:13Z</time>
      </trkpt>
      <trkpt lat="42.42243" lon="0.02493">
        <ele>1100.8</ele>
        <time>2016-07-31T08:29:15Z</time>
      </trkpt>
      <trkpt lat="42.42244" lon="0.02497">
        <ele>1100.8</ele>
        <time>2016-07-31T08:29:16Z</time>
      </trkpt>
      <trkpt lat="42.42245" lon="0.025">
        <ele>1100.9</ele>
        <time>2016-07-31T08:29:17Z</time>
      </trkpt>
      <trkpt lat="42.42246" lon="0.02504">
        <ele>1101</ele>
        <time>2016-07-31T08:29:18Z</time>
      </trkpt>
      <trkpt lat="42.42247" lon="0.02508">
        <ele>1101.1</ele>
        <time>2016-07-31T08:29:19Z</time>
      </trkpt>
      <trkpt lat="42.42247" lon="0.02511">
        <ele>1101.1</ele>
        <time>2016-07-31T08:29:20Z</time>
      </trkpt>
      <trkpt lat="42.42248" lon="0.02515">
        <ele>1101.2</ele>
        <time>2016-07-31T08:29:21Z</time>
      </trkpt>
      <trkpt lat="42.42249" lon="0.02519">
        <ele>1101.3</ele>
        <time>2016-07-31T08:29:22Z</time>
      </trkpt>
      <trkpt lat="42.4225" lon="0.02523">
        <ele>1101.4</ele>
        <time>2016-07-31T08:29:23Z</time>
      </trkpt>
      <trkpt lat="42.42251" lon="0.02527">
        <ele>1101.6</ele>
        <time>2016-07-31T08:29:24Z</time>
      </trkpt>
      <trkpt lat="42.42252" lon="0.02532">
        <ele>1101.7</ele>
        <time>2016-07-31T08:29:25Z</time>
      </trkpt>
      <trkpt lat="42.42253" lon="0.02536">
        <ele>1101.8</ele>
        <time>2016-07-31T08:29:26Z</time>
      </trkpt>
      <trkpt lat="42.42254" lon="0.0254">
        <ele>1101.9</ele>
        <time>2016-07-31T08:29:27Z</time>
      </trkpt>
      <trkpt lat="42.42255" lon="0.02544">
        <ele>1102</ele>
        <time>2016-07-31T08:29:28Z</time>
      </trkpt>
      <trkpt lat="42.42257" lon="0.02549">
        <ele>1102.1</ele>
        <time>2016-07-31T08:29:29Z</time>
      </trkpt>
      <trkpt lat="42.42258" lon="0.02552">
        <ele>1102.1</ele>
        <time>2016-07-31T08:29:30Z</time>
      </trkpt>
      <trkpt lat="42.42259" lon="0.02556">
        <ele>1102.1</ele>
        <time>2016-07-31T08:29:31Z</time>
      </trkpt>
      <trkpt lat="42.42261" lon="0.0256">
        <ele>1102.2</ele>
        <time>2016-07-31T08:29:32Z</time>
      </trkpt>
      <trkpt lat="42.42262" lon="0.02564">
        <ele>1102.2</ele>
        <time>2016-07-31T08:29:33Z</time>
      </trkpt>
      <trkpt lat="42.42264" lon="0.02567">
        <ele>1102.3</ele>
        <time>2016-07-31T08:29:34Z</time>
      </trkpt>
      <trkpt lat="42.42265" lon="0.02571">
        <ele>1102.4</ele>
        <time>2016-07-31T08:29:35Z</time>
      </trkpt>
      <trkpt lat="42.42266" lon="0.02575">
        <ele>1102.4</ele>
        <time>2016-07-31T08:29:36Z</time>
      </trkpt>
      <trkpt lat="42.42268" lon="0.02579">
        <ele>1102.5</ele>
        <time>2016-07-31T08:29:37Z</time>
      </trkpt>
      <trkpt lat="42.42269" lon="0.02582">
        <ele>1102.6</ele>
        <time>2016-07-31T08:29:38Z</time>
      </trkpt>
      <trkpt lat="42.42271" lon="0.02585">
        <ele>1102.7</ele>
        <time>2016-07-31T08:29:39Z</time>
      </trkpt>
      <trkpt lat="42.42273" lon="0.02587">
        <ele>1102.7</ele>
        <time>2016-07-31T08:29:40Z</time>
      </trkpt>
      <trkpt lat="42.42276" lon="0.0259">
        <ele>1102.8</ele>
        <time>2016-07-31T08:29:41Z</time>
      </trkpt>
      <trkpt lat="42.42278" lon="0.02592">
        <ele>1102.9</ele>
        <time>2016-07-31T08:29:42Z</time>
      </trkpt>
      <trkpt lat="42.42281" lon="0.02595">
        <ele>1103</ele>
        <time>2016-07-31T08:29:43Z</time>
      </trkpt>
      <trkpt lat="42.42283" lon="0.02597">
        <ele>1103.1</ele>
        <time>2016-07-31T08:29:44Z</time>
      </trkpt>
      <trkpt lat="42.42285" lon="0.02599">
        <ele>1103.2</ele>
        <time>2016-07-31T08:29:45Z</time>
      </trkpt>
      <trkpt lat="42.42288" lon="0.02601">
        <ele>1103.3</ele>
        <time>2016-07-31T08:29:46Z</time>
      </trkpt>
      <trkpt lat="42.4229" lon="0.02604">
        <ele>1103.4</ele>
        <time>2016-07-31T08:29:47Z</time>
      </trkpt>
      <trkpt lat="42.42292" lon="0.02606">
        <ele>1103.5</ele>
        <time>2016-07-31T08:29:48Z</time>
      </trkpt>
      <trkpt lat="42.42296" lon="0.0261">
        <ele>1103.5</ele>
        <time>2016-07-31T08:29:50Z</time>
      </trkpt>
      <trkpt lat="42.423" lon="0.02614">
        <ele>1103.5</ele>
        <time>2016-07-31T08:29:52Z</time>
      </trkpt>
      <trkpt lat="42.42305" lon="0.02617">
        <ele>1103.5</ele>
        <time>2016-07-31T08:29:54Z</time>
      </trkpt>
      <trkpt lat="42.42308" lon="0.02619">
        <ele>1103.5</ele>
        <time>2016-07-31T08:29:55Z</time>
      </trkpt>
      <trkpt lat="42.4231" lon="0.02621">
        <ele>1103.6</ele>
        <time>2016-07-31T08:29:56Z</time>
      </trkpt>
      <trkpt lat="42.42313" lon="0.02624">
        <ele>1103.7</ele>
        <time>2016-07-31T08:29:57Z</time>
      </trkpt>
      <trkpt lat="42.42315" lon="0.02627">
        <ele>1103.7</ele>
        <time>2016-07-31T08:29:58Z</time>
      </trkpt>
      <trkpt lat="42.42317" lon="0.02629">
        <ele>1103.7</ele>
        <time>2016-07-31T08:29:59Z</time>
      </trkpt>
      <trkpt lat="42.42319" lon="0.02632">
        <ele>1103.7</ele>
        <time>2016-07-31T08:30:00Z</time>
      </trkpt>
      <trkpt lat="42.42322" lon="0.02635">
        <ele>1103.7</ele>
        <time>2016-07-31T08:30:01Z</time>
      </trkpt>
      <trkpt lat="42.42324" lon="0.02638">
        <ele>1103.7</ele>
        <time>2016-07-31T08:30:02Z</time>
      </trkpt>
      <trkpt lat="42.42326" lon="0.02641">
        <ele>1103.8</ele>
        <time>2016-07-31T08:30:03Z</time>
      </trkpt>
      <trkpt lat="42.42328" lon="0.02645">
        <ele>1103.8</ele>
        <time>2016-07-31T08:30:04Z</time>
      </trkpt>
      <trkpt lat="42.42331" lon="0.02648">
        <ele>1103.9</ele>
        <time>2016-07-31T08:30:05Z</time>
      </trkpt>
      <trkpt lat="42.42333" lon="0.02651">
        <ele>1104</ele>
        <time>2016-07-31T08:30:06Z</time>
      </trkpt>
      <trkpt lat="42.42335" lon="0.02654">
        <ele>1104</ele>
        <time>2016-07-31T08:30:07Z</time>
      </trkpt>
      <trkpt lat="42.42338" lon="0.02656">
        <ele>1104.2</ele>
        <time>2016-07-31T08:30:08Z</time>
      </trkpt>
      <trkpt lat="42.4234" lon="0.02659">
        <ele>1104.3</ele>
        <time>2016-07-31T08:30:09Z</time>
      </trkpt>
      <trkpt lat="42.42343" lon="0.02662">
        <ele>1104.4</ele>
        <time>2016-07-31T08:30:10Z</time>
      </trkpt>
      <trkpt lat="42.42346" lon="0.02664">
        <ele>1104.5</ele>
        <time>2016-07-31T08:30:11Z</time>
      </trkpt>
      <trkpt lat="42.42348" lon="0.02667">
        <ele>1104.7</ele>
        <time>2016-07-31T08:30:12Z</time>
      </trkpt>
      <trkpt lat="42.42351" lon="0.02669">
        <ele>1104.9</ele>
        <time>2016-07-31T08:30:13Z</time>
      </trkpt>
      <trkpt lat="42.42353" lon="0.02671">
        <ele>1105</ele>
        <time>2016-07-31T08:30:14Z</time>
      </trkpt>
      <trkpt lat="42.42356" lon="0.02674">
        <ele>1105.2</ele>
        <time>2016-07-31T08:30:15Z</time>
      </trkpt>
      <trkpt lat="42.42358" lon="0.02676">
        <ele>1105.4</ele>
        <time>2016-07-31T08:30:16Z</time>
      </trkpt>
      <trkpt lat="42.4236" lon="0.02678">
        <ele>1105.6</ele>
        <time>2016-07-31T08:30:17Z</time>
      </trkpt>
      <trkpt lat="42.42363" lon="0.0268">
        <ele>1105.8</ele>
        <time>2016-07-31T08:30:18Z</time>
      </trkpt>
      <trkpt lat="42.42365" lon="0.02682">
        <ele>1106</ele>
        <time>2016-07-31T08:30:19Z</time>
      </trkpt>
      <trkpt lat="42.4237" lon="0.02686">
        <ele>1106.4</ele>
        <time>2016-07-31T08:30:21Z</time>
      </trkpt>
      <trkpt lat="42.42372" lon="0.02688">
        <ele>1106.6</ele>
        <time>2016-07-31T08:30:22Z</time>
      </trkpt>
      <trkpt lat="42.42374" lon="0.0269">
        <ele>1106.8</ele>
        <time>2016-07-31T08:30:23Z</time>
      </trkpt>
      <trkpt lat="42.42377" lon="0.02692">
        <ele>1106.9</ele>
        <time>2016-07-31T08:30:24Z</time>
      </trkpt>
      <trkpt lat="42.42379" lon="0.02693">
        <ele>1106.8</ele>
        <time>2016-07-31T08:30:25Z</time>
      </trkpt>
      <trkpt lat="42.42382" lon="0.02695">
        <ele>1106.7</ele>
        <time>2016-07-31T08:30:26Z</time>
      </trkpt>
      <trkpt lat="42.42385" lon="0.02696">
        <ele>1106.7</ele>
        <time>2016-07-31T08:30:27Z</time>
      </trkpt>
      <trkpt lat="42.42387" lon="0.02698">
        <ele>1106.7</ele>
        <time>2016-07-31T08:30:28Z</time>
      </trkpt>
      <trkpt lat="42.4239" lon="0.02699">
        <ele>1106.7</ele>
        <time>2016-07-31T08:30:29Z</time>
      </trkpt>
      <trkpt lat="42.42393" lon="0.02701">
        <ele>1106.7</ele>
        <time>2016-07-31T08:30:30Z</time>
      </trkpt>
      <trkpt lat="42.42395" lon="0.02703">
        <ele>1106.7</ele>
        <time>2016-07-31T08:30:31Z</time>
      </trkpt>
      <trkpt lat="42.42398" lon="0.02704">
        <ele>1106.7</ele>
        <time>2016-07-31T08:30:32Z</time>
      </trkpt>
      <trkpt lat="42.42401" lon="0.02706">
        <ele>1106.8</ele>
        <time>2016-07-31T08:30:33Z</time>
      </trkpt>
      <trkpt lat="42.42405" lon="0.02709">
        <ele>1106.9</ele>
        <time>2016-07-31T08:30:35Z</time>
      </trkpt>
      <trkpt lat="42.42408" lon="0.02711">
        <ele>1106.9</ele>
        <time>2016-07-31T08:30:37Z</time>
      </trkpt>
      <trkpt lat="42.42411" lon="0.02713">
        <ele>1106.9</ele>
        <time>2016-07-31T08:30:39Z</time>
      </trkpt>
      <trkpt lat="42.42415" lon="0.02716">
        <ele>1107</ele>
        <time>2016-07-31T08:30:41Z</time>
      </trkpt>
      <trkpt lat="42.42419" lon="0.02718">
        <ele>1107</ele>
        <time>2016-07-31T08:30:43Z</time>
      </trkpt>
      <trkpt lat="42.42422" lon="0.02722">
        <ele>1107.1</ele>
        <time>2016-07-31T08:30:45Z</time>
      </trkpt>
      <trkpt lat="42.42426" lon="0.02725">
        <ele>1107.3</ele>
        <time>2016-07-31T08:30:47Z</time>
      </trkpt>
      <trkpt lat="42.42431" lon="0.02728">
        <ele>1107.4</ele>
        <time>2016-07-31T08:30:49Z</time>
      </trkpt>
      <trkpt lat="42.42433" lon="0.0273">
        <ele>1107.5</ele>
        <time>2016-07-31T08:30:50Z</time>
      </trkpt>
      <trkpt lat="42.42436" lon="0.02731">
        <ele>1107.6</ele>
        <time>2016-07-31T08:30:51Z</time>
      </trkpt>
      <trkpt lat="42.42439" lon="0.02733">
        <ele>1107.7</ele>
        <time>2016-07-31T08:30:52Z</time>
      </trkpt>
      <trkpt lat="42.42442" lon="0.02735">
        <ele>1107.9</ele>
        <time>2016-07-31T08:30:53Z</time>
      </trkpt>
      <trkpt lat="42.42444" lon="0.02737">
        <ele>1108.1</ele>
        <time>2016-07-31T08:30:54Z</time>
      </trkpt>
      <trkpt lat="42.42447" lon="0.02739">
        <ele>1108.3</ele>
        <time>2016-07-31T08:30:55Z</time>
      </trkpt>
      <trkpt lat="42.4245" lon="0.02741">
        <ele>1108.5</ele>
        <time>2016-07-31T08:30:56Z</time>
      </trkpt>
      <trkpt lat="42.42452" lon="0.02744">
        <ele>1108.8</ele>
        <time>2016-07-31T08:30:57Z</time>
      </trkpt>
      <trkpt lat="42.42455" lon="0.02746">
        <ele>1109</ele>
        <time>2016-07-31T08:30:58Z</time>
      </trkpt>
      <trkpt lat="42.42457" lon="0.02749">
        <ele>1109.3</ele>
        <time>2016-07-31T08:30:59Z</time>
      </trkpt>
      <trkpt lat="42.4246" lon="0.02751">
        <ele>1109.5</ele>
        <time>2016-07-31T08:31:00Z</time>
      </trkpt>
      <trkpt lat="42.42462" lon="0.02753">
        <ele>1109.6</ele>
        <time>2016-07-31T08:31:01Z</time>
      </trkpt>
      <trkpt lat="42.42464" lon="0.02755">
        <ele>1109.7</ele>
        <time>2016-07-31T08:31:02Z</time>
      </trkpt>
      <trkpt lat="42.42467" lon="0.02758">
        <ele>1109.9</ele>
        <time>2016-07-31T08:31:03Z</time>
      </trkpt>
      <trkpt lat="42.4247" lon="0.02762">
        <ele>1110.2</ele>
        <time>2016-07-31T08:31:05Z</time>
      </trkpt>
      <trkpt lat="42.42474" lon="0.02766">
        <ele>1110.6</ele>
        <time>2016-07-31T08:31:07Z</time>
      </trkpt>
      <trkpt lat="42.42477" lon="0.02769">
        <ele>1110.8</ele>
        <time>2016-07-31T08:31:09Z</time>
      </trkpt>
      <trkpt lat="42.4248" lon="0.02771">
        <ele>1111</ele>
        <time>2016-07-31T08:31:11Z</time>
      </trkpt>
      <trkpt lat="42.42483" lon="0.02774">
        <ele>1111.3</ele>
        <time>2016-07-31T08:31:14Z</time>
      </trkpt>
      <trkpt lat="42.42486" lon="0.02777">
        <ele>1111.6</ele>
        <time>2016-07-31T08:31:16Z</time>
      </trkpt>
      <trkpt lat="42.42487" lon="0.02781">
        <ele>1112.2</ele>
        <time>2016-07-31T08:32:01Z</time>
      </trkpt>
      <trkpt lat="42.42489" lon="0.02784">
        <ele>1112.5</ele>
        <time>2016-07-31T08:32:03Z</time>
      </trkpt>
      <trkpt lat="42.42494" lon="0.02787">
        <ele>1112.9</ele>
        <time>2016-07-31T08:32:05Z</time>
      </trkpt>
      <trkpt lat="42.42496" lon="0.0279">
        <ele>1113.2</ele>
        <time>2016-07-31T08:32:06Z</time>
      </trkpt>
      <trkpt lat="42.42499" lon="0.02793">
        <ele>1113.5</ele>
        <time>2016-07-31T08:32:07Z</time>
      </trkpt>
      <trkpt lat="42.42501" lon="0.02796">
        <ele>1113.6</ele>
        <time>2016-07-31T08:32:08Z</time>
      </trkpt>
      <trkpt lat="42.42504" lon="0.028">
        <ele>1113.8</ele>
        <time>2016-07-31T08:32:09Z</time>
      </trkpt>
      <trkpt lat="42.42506" lon="0.02804">
        <ele>1113.9</ele>
        <time>2016-07-31T08:32:10Z</time>
      </trkpt>
      <trkpt lat="42.42508" lon="0.02807">
        <ele>1114</ele>
        <time>2016-07-31T08:32:11Z</time>
      </trkpt>
      <trkpt lat="42.42511" lon="0.0281">
        <ele>1114.1</ele>
        <time>2016-07-31T08:32:12Z</time>
      </trkpt>
      <trkpt lat="42.42514" lon="0.02813">
        <ele>1114.2</ele>
        <time>2016-07-31T08:32:13Z</time>
      </trkpt>
      <trkpt lat="42.42517" lon="0.02816">
        <ele>1114.3</ele>
        <time>2016-07-31T08:32:14Z</time>
      </trkpt>
      <trkpt lat="42.4252" lon="0.0282">
        <ele>1114.4</ele>
        <time>2016-07-31T08:32:15Z</time>
      </trkpt>
      <trkpt lat="42.42523" lon="0.02823">
        <ele>1114.6</ele>
        <time>2016-07-31T08:32:16Z</time>
      </trkpt>
      <trkpt lat="42.42526" lon="0.02827">
        <ele>1114.7</ele>
        <time>2016-07-31T08:32:17Z</time>
      </trkpt>
      <trkpt lat="42.42529" lon="0.02832">
        <ele>1114.9</ele>
        <time>2016-07-31T08:32:18Z</time>
      </trkpt>
      <trkpt lat="42.42531" lon="0.02837">
        <ele>1115.2</ele>
        <time>2016-07-31T08:32:19Z</time>
      </trkpt>
      <trkpt lat="42.42534" lon="0.02842">
        <ele>1115.4</ele>
        <time>2016-07-31T08:32:20Z</time>
      </trkpt>
      <trkpt lat="42.42536" lon="0.02848">
        <ele>1115.7</ele>
        <time>2016-07-31T08:32:21Z</time>
      </trkpt>
      <trkpt lat="42.42539" lon="0.02854">
        <ele>1116</ele>
        <time>2016-07-31T08:32:22Z</time>
      </trkpt>
      <trkpt lat="42.42542" lon="0.0286">
        <ele>1116.2</ele>
        <time>2016-07-31T08:32:23Z</time>
      </trkpt>
      <trkpt lat="42.42546" lon="0.02867">
        <ele>1116</ele>
        <time>2016-07-31T08:32:24Z</time>
      </trkpt>
      <trkpt lat="42.42549" lon="0.02874">
        <ele>1115.9</ele>
        <time>2016-07-31T08:32:25Z</time>
      </trkpt>
      <trkpt lat="42.42552" lon="0.02881">
        <ele>1115.4</ele>
        <time>2016-07-31T08:32:26Z</time>
      </trkpt>
      <trkpt lat="42.42556" lon="0.02888">
        <ele>1114.9</ele>
        <time>2016-07-31T08:32:27Z</time>
      </trkpt>
      <trkpt lat="42.42559" lon="0.02895">
        <ele>1114.4</ele>
        <time>2016-07-31T08:32:28Z</time>
      </trkpt>
      <trkpt lat="42.42563" lon="0.02901">
        <ele>1113.9</ele>
        <time>2016-07-31T08:32:29Z</time>
      </trkpt>
      <trkpt lat="42.42567" lon="0.02907">
        <ele>1113.4</ele>
        <time>2016-07-31T08:32:30Z</time>
      </trkpt>
      <trkpt lat="42.42569" lon="0.02914">
        <ele>1113</ele>
        <time>2016-07-31T08:32:31Z</time>
      </trkpt>
      <trkpt lat="42.42572" lon="0.02921">
        <ele>1112.7</ele>
        <time>2016-07-31T08:32:32Z</time>
      </trkpt>
      <trkpt lat="42.42575" lon="0.02929">
        <ele>1112.3</ele>
        <time>2016-07-31T08:32:33Z</time>
      </trkpt>
      <trkpt lat="42.42577" lon="0.02936">
        <ele>1112.1</ele>
        <time>2016-07-31T08:32:34Z</time>
      </trkpt>
      <trkpt lat="42.4258" lon="0.02944">
        <ele>1111.8</ele>
        <time>2016-07-31T08:32:35Z</time>
      </trkpt>
      <trkpt lat="42.42584" lon="0.02951">
        <ele>1111.4</ele>
        <time>2016-07-31T08:32:36Z</time>
      </trkpt>
      <trkpt lat="42.42587" lon="0.02959">
        <ele>1111.1</ele>
        <time>2016-07-31T08:32:37Z</time>
      </trkpt>
      <trkpt lat="42.4259" lon="0.02967">
        <ele>1110.3</ele>
        <time>2016-07-31T08:32:38Z</time>
      </trkpt>
      <trkpt lat="42.42593" lon="0.02976">
        <ele>1109.6</ele>
        <time>2016-07-31T08:32:39Z</time>
      </trkpt>
      <trkpt lat="42.42596" lon="0.02983">
        <ele>1108.8</ele>
        <time>2016-07-31T08:32:40Z</time>
      </trkpt>
      <trkpt lat="42.42599" lon="0.02992">
        <ele>1108.1</ele>
        <time>2016-07-31T08:32:41Z</time>
      </trkpt>
      <trkpt lat="42.42602" lon="0.03">
        <ele>1107.5</ele>
        <time>2016-07-31T08:32:42Z</time>
      </trkpt>
      <trkpt lat="42.42604" lon="0.03008">
        <ele>1106.9</ele>
        <time>2016-07-31T08:32:43Z</time>
      </trkpt>
      <trkpt lat="42.42607" lon="0.03015">
        <ele>1106.3</ele>
        <time>2016-07-31T08:32:44Z</time>
      </trkpt>
      <trkpt lat="42.4261" lon="0.03024">
        <ele>1105.7</ele>
        <time>2016-07-31T08:32:45Z</time>
      </trkpt>
      <trkpt lat="42.42613" lon="0.03031">
        <ele>1105.1</ele>
        <time>2016-07-31T08:32:46Z</time>
      </trkpt>
      <trkpt lat="42.42616" lon="0.03039">
        <ele>1104.6</ele>
        <time>2016-07-31T08:32:47Z</time>
      </trkpt>
      <trkpt lat="42.42618" lon="0.03047">
        <ele>1104</ele>
        <time>2016-07-31T08:32:48Z</time>
      </trkpt>
      <trkpt lat="42.4262" lon="0.03055">
        <ele>1103.3</ele>
        <time>2016-07-31T08:32:49Z</time>
      </trkpt>
      <trkpt lat="42.42621" lon="0.03062">
        <ele>1102.7</ele>
        <time>2016-07-31T08:32:50Z</time>
      </trkpt>
      <trkpt lat="42.42623" lon="0.03069">
        <ele>1102.1</ele>
        <time>2016-07-31T08:32:51Z</time>
      </trkpt>
      <trkpt lat="42.42625" lon="0.03076">
        <ele>1101.5</ele>
        <time>2016-07-31T08:32:52Z</time>
      </trkpt>
      <trkpt lat="42.42627" lon="0.03083">
        <ele>1100.9</ele>
        <time>2016-07-31T08:32:53Z</time>
      </trkpt>
      <trkpt lat="42.42629" lon="0.0309">
        <ele>1100.3</ele>
        <time>2016-07-31T08:32:54Z</time>
      </trkpt>
      <trkpt lat="42.42631" lon="0.03097">
        <ele>1099.8</ele>
        <time>2016-07-31T08:32:55Z</time>
      </trkpt>
      <trkpt lat="42.42633" lon="0.03103">
        <ele>1099.4</ele>
        <time>2016-07-31T08:32:56Z</time>
      </trkpt>
      <trkpt lat="42.42635" lon="0.0311">
        <ele>1099</ele>
        <time>2016-07-31T08:32:57Z</time>
      </trkpt>
      <trkpt lat="42.42637" lon="0.03116">
        <ele>1098.6</ele>
        <time>2016-07-31T08:32:58Z</time>
      </trkpt>
      <trkpt lat="42.42639" lon="0.03122">
        <ele>1098.3</ele>
        <time>2016-07-31T08:32:59Z</time>
      </trkpt>
      <trkpt lat="42.42641" lon="0.03128">
        <ele>1097.9</ele>
        <time>2016-07-31T08:33:00Z</time>
      </trkpt>
      <trkpt lat="42.42644" lon="0.03135">
        <ele>1097.5</ele>
        <time>2016-07-31T08:33:01Z</time>
      </trkpt>
      <trkpt lat="42.42646" lon="0.03141">
        <ele>1097</ele>
        <time>2016-07-31T08:33:02Z</time>
      </trkpt>
      <trkpt lat="42.42648" lon="0.03147">
        <ele>1096.7</ele>
        <time>2016-07-31T08:33:03Z</time>
      </trkpt>
      <trkpt lat="42.42651" lon="0.03153">
        <ele>1096.4</ele>
        <time>2016-07-31T08:33:04Z</time>
      </trkpt>
      <trkpt lat="42.42653" lon="0.03158">
        <ele>1096.1</ele>
        <time>2016-07-31T08:33:05Z</time>
      </trkpt>
      <trkpt lat="42.42655" lon="0.03164">
        <ele>1095.8</ele>
        <time>2016-07-31T08:33:06Z</time>
      </trkpt>
      <trkpt lat="42.42657" lon="0.03169">
        <ele>1095.6</ele>
        <time>2016-07-31T08:33:07Z</time>
      </trkpt>
      <trkpt lat="42.4266" lon="0.03174">
        <ele>1095.5</ele>
        <time>2016-07-31T08:33:08Z</time>
      </trkpt>
      <trkpt lat="42.42664" lon="0.03176">
        <ele>1095.6</ele>
        <time>2016-07-31T08:33:09Z</time>
      </trkpt>
      <trkpt lat="42.42669" lon="0.03178">
        <ele>1095.8</ele>
        <time>2016-07-31T08:33:10Z</time>
      </trkpt>
      <trkpt lat="42.42674" lon="0.03179">
        <ele>1096</ele>
        <time>2016-07-31T08:33:11Z</time>
      </trkpt>
      <trkpt lat="42.42678" lon="0.03181">
        <ele>1096.2</ele>
        <time>2016-07-31T08:33:12Z</time>
      </trkpt>
      <trkpt lat="42.42682" lon="0.03184">
        <ele>1096.4</ele>
        <time>2016-07-31T08:33:13Z</time>
      </trkpt>
      <trkpt lat="42.42687" lon="0.03185">
        <ele>1096.7</ele>
        <time>2016-07-31T08:33:14Z</time>
      </trkpt>
      <trkpt lat="42.42691" lon="0.03187">
        <ele>1096.9</ele>
        <time>2016-07-31T08:33:15Z</time>
      </trkpt>
      <trkpt lat="42.42695" lon="0.03189">
        <ele>1097.2</ele>
        <time>2016-07-31T08:33:16Z</time>
      </trkpt>
      <trkpt lat="42.427" lon="0.03191">
        <ele>1097.5</ele>
        <time>2016-07-31T08:33:17Z</time>
      </trkpt>
      <trkpt lat="42.42704" lon="0.03193">
        <ele>1097.9</ele>
        <time>2016-07-31T08:33:18Z</time>
      </trkpt>
      <trkpt lat="42.42709" lon="0.03196">
        <ele>1098.1</ele>
        <time>2016-07-31T08:33:19Z</time>
      </trkpt>
      <trkpt lat="42.42713" lon="0.03198">
        <ele>1097.8</ele>
        <time>2016-07-31T08:33:20Z</time>
      </trkpt>
      <trkpt lat="42.42717" lon="0.03202">
        <ele>1097.5</ele>
        <time>2016-07-31T08:33:21Z</time>
      </trkpt>
      <trkpt lat="42.42721" lon="0.03206">
        <ele>1097.4</ele>
        <time>2016-07-31T08:33:22Z</time>
      </trkpt>
      <trkpt lat="42.42725" lon="0.0321">
        <ele>1097</ele>
        <time>2016-07-31T08:33:23Z</time>
      </trkpt>
      <trkpt lat="42.42729" lon="0.03215">
        <ele>1096.4</ele>
        <time>2016-07-31T08:33:24Z</time>
      </trkpt>
      <trkpt lat="42.42734" lon="0.03219">
        <ele>1095.8</ele>
        <time>2016-07-31T08:33:25Z</time>
      </trkpt>
      <trkpt lat="42.42738" lon="0.03224">
        <ele>1095.2</ele>
        <time>2016-07-31T08:33:26Z</time>
      </trkpt>
      <trkpt lat="42.42743" lon="0.03229">
        <ele>1094.6</ele>
        <time>2016-07-31T08:33:27Z</time>
      </trkpt>
      <trkpt lat="42.42748" lon="0.03234">
        <ele>1093.9</ele>
        <time>2016-07-31T08:33:28Z</time>
      </trkpt>
      <trkpt lat="42.42752" lon="0.03239">
        <ele>1093.3</ele>
        <time>2016-07-31T08:33:29Z</time>
      </trkpt>
      <trkpt lat="42.42757" lon="0.03243">
        <ele>1092.8</ele>
        <time>2016-07-31T08:33:30Z</time>
      </trkpt>
      <trkpt lat="42.42761" lon="0.03246">
        <ele>1092.4</ele>
        <time>2016-07-31T08:33:31Z</time>
      </trkpt>
      <trkpt lat="42.42765" lon="0.03248">
        <ele>1092.2</ele>
        <time>2016-07-31T08:33:32Z</time>
      </trkpt>
      <trkpt lat="42.42768" lon="0.03248">
        <ele>1092</ele>
        <time>2016-07-31T08:33:33Z</time>
      </trkpt>
      <trkpt lat="42.42772" lon="0.03248">
        <ele>1091.9</ele>
        <time>2016-07-31T08:33:34Z</time>
      </trkpt>
      <trkpt lat="42.42775" lon="0.03248">
        <ele>1091.8</ele>
        <time>2016-07-31T08:33:35Z</time>
      </trkpt>
      <trkpt lat="42.42778" lon="0.03253">
        <ele>1091.3</ele>
        <time>2016-07-31T08:33:37Z</time>
      </trkpt>
      <trkpt lat="42.42779" lon="0.03258">
        <ele>1090.9</ele>
        <time>2016-07-31T08:33:38Z</time>
      </trkpt>
      <trkpt lat="42.4278" lon="0.03263">
        <ele>1090.4</ele>
        <time>2016-07-31T08:33:39Z</time>
      </trkpt>
      <trkpt lat="42.42781" lon="0.03268">
        <ele>1090</ele>
        <time>2016-07-31T08:33:40Z</time>
      </trkpt>
      <trkpt lat="42.42782" lon="0.03273">
        <ele>1089.7</ele>
        <time>2016-07-31T08:33:41Z</time>
      </trkpt>
      <trkpt lat="42.42783" lon="0.03276">
        <ele>1089.4</ele>
        <time>2016-07-31T08:33:42Z</time>
      </trkpt>
      <trkpt lat="42.42785" lon="0.03279">
        <ele>1089.1</ele>
        <time>2016-07-31T08:33:43Z</time>
      </trkpt>
      <trkpt lat="42.42788" lon="0.03281">
        <ele>1088.9</ele>
        <time>2016-07-31T08:33:44Z</time>
      </trkpt>
      <trkpt lat="42.4279" lon="0.03284">
        <ele>1088.6</ele>
        <time>2016-07-31T08:33:45Z</time>
      </trkpt>
      <trkpt lat="42.42791" lon="0.03291">
        <ele>1088.1</ele>
        <time>2016-07-31T08:33:47Z</time>
      </trkpt>
      <trkpt lat="42.4279" lon="0.03297">
        <ele>1087.4</ele>
        <time>2016-07-31T08:33:49Z</time>
      </trkpt>
      <trkpt lat="42.4279" lon="0.03303">
        <ele>1086.6</ele>
        <time>2016-07-31T08:33:51Z</time>
      </trkpt>
      <trkpt lat="42.42791" lon="0.03308">
        <ele>1086</ele>
        <time>2016-07-31T08:33:53Z</time>
      </trkpt>
      <trkpt lat="42.42791" lon="0.03317">
        <ele>1085</ele>
        <time>2016-07-31T08:35:55Z</time>
      </trkpt>
      <trkpt lat="42.42791" lon="0.03323">
        <ele>1084.3</ele>
        <time>2016-07-31T08:35:57Z</time>
      </trkpt>
      <trkpt lat="42.42791" lon="0.0333">
        <ele>1083.5</ele>
        <time>2016-07-31T08:35:59Z</time>
      </trkpt>
      <trkpt lat="42.42794" lon="0.03335">
        <ele>1082.7</ele>
        <time>2016-07-31T08:36:01Z</time>
      </trkpt>
      <trkpt lat="42.42796" lon="0.03338">
        <ele>1082.3</ele>
        <time>2016-07-31T08:36:02Z</time>
      </trkpt>
      <trkpt lat="42.42798" lon="0.0334">
        <ele>1081.9</ele>
        <time>2016-07-31T08:36:03Z</time>
      </trkpt>
      <trkpt lat="42.428" lon="0.03343">
        <ele>1081.5</ele>
        <time>2016-07-31T08:36:04Z</time>
      </trkpt>
      <trkpt lat="42.42802" lon="0.03349">
        <ele>1080.6</ele>
        <time>2016-07-31T08:36:06Z</time>
      </trkpt>
      <trkpt lat="42.42806" lon="0.03354">
        <ele>1080</ele>
        <time>2016-07-31T08:36:08Z</time>
      </trkpt>
      <trkpt lat="42.42809" lon="0.03355">
        <ele>1079.7</ele>
        <time>2016-07-31T08:36:09Z</time>
      </trkpt>
      <trkpt lat="42.42812" lon="0.03356">
        <ele>1079.4</ele>
        <time>2016-07-31T08:36:10Z</time>
      </trkpt>
      <trkpt lat="42.42814" lon="0.03358">
        <ele>1079.1</ele>
        <time>2016-07-31T08:36:11Z</time>
      </trkpt>
      <trkpt lat="42.42817" lon="0.0336">
        <ele>1078.7</ele>
        <time>2016-07-31T08:36:12Z</time>
      </trkpt>
      <trkpt lat="42.4282" lon="0.03363">
        <ele>1078.3</ele>
        <time>2016-07-31T08:36:13Z</time>
      </trkpt>
      <trkpt lat="42.42823" lon="0.03366">
        <ele>1077.9</ele>
        <time>2016-07-31T08:36:14Z</time>
      </trkpt>
      <trkpt lat="42.42825" lon="0.03369">
        <ele>1077.4</ele>
        <time>2016-07-31T08:36:15Z</time>
      </trkpt>
      <trkpt lat="42.42828" lon="0.03372">
        <ele>1077</ele>
        <time>2016-07-31T08:36:16Z</time>
      </trkpt>
      <trkpt lat="42.42831" lon="0.03376">
        <ele>1076.5</ele>
        <time>2016-07-31T08:36:17Z</time>
      </trkpt>
      <trkpt lat="42.42833" lon="0.0338">
        <ele>1075.8</ele>
        <time>2016-07-31T08:36:18Z</time>
      </trkpt>
      <trkpt lat="42.42835" lon="0.03384">
        <ele>1075</ele>
        <time>2016-07-31T08:36:19Z</time>
      </trkpt>
      <trkpt lat="42.42837" lon="0.03389">
        <ele>1074.2</ele>
        <time>2016-07-31T08:36:20Z</time>
      </trkpt>
      <trkpt lat="42.42838" lon="0.03394">
        <ele>1073.4</ele>
        <time>2016-07-31T08:36:21Z</time>
      </trkpt>
      <trkpt lat="42.4284" lon="0.03399">
        <ele>1072.7</ele>
        <time>2016-07-31T08:36:22Z</time>
      </trkpt>
      <trkpt lat="42.42841" lon="0.03403">
        <ele>1072.1</ele>
        <time>2016-07-31T08:36:23Z</time>
      </trkpt>
      <trkpt lat="42.42843" lon="0.03408">
        <ele>1071.4</ele>
        <time>2016-07-31T08:36:24Z</time>
      </trkpt>
      <trkpt lat="42.42845" lon="0.03413">
        <ele>1070.7</ele>
        <time>2016-07-31T08:36:25Z</time>
      </trkpt>
      <trkpt lat="42.42847" lon="0.03418">
        <ele>1070</ele>
        <time>2016-07-31T08:36:26Z</time>
      </trkpt>
      <trkpt lat="42.42848" lon="0.03421">
        <ele>1069.5</ele>
        <time>2016-07-31T08:36:27Z</time>
      </trkpt>
      <trkpt lat="42.4285" lon="0.03424">
        <ele>1069.2</ele>
        <time>2016-07-31T08:36:28Z</time>
      </trkpt>
      <trkpt lat="42.42852" lon="0.03427">
        <ele>1068.8</ele>
        <time>2016-07-31T08:36:29Z</time>
      </trkpt>
      <trkpt lat="42.42854" lon="0.03431">
        <ele>1068.4</ele>
        <time>2016-07-31T08:36:30Z</time>
      </trkpt>
      <trkpt lat="42.42856" lon="0.03434">
        <ele>1068</ele>
        <time>2016-07-31T08:36:31Z</time>
      </trkpt>
      <trkpt lat="42.42859" lon="0.03439">
        <ele>1067.4</ele>
        <time>2016-07-31T08:36:33Z</time>
      </trkpt>
      <trkpt lat="42.42859" lon="0.03445">
        <ele>1066.7</ele>
        <time>2016-07-31T08:36:35Z</time>
      </trkpt>
      <trkpt lat="42.42861" lon="0.03451">
        <ele>1066.1</ele>
        <time>2016-07-31T08:36:37Z</time>
      </trkpt>
      <trkpt lat="42.42863" lon="0.03457">
        <ele>1065.4</ele>
        <time>2016-07-31T08:36:39Z</time>
      </trkpt>
      <trkpt lat="42.42866" lon="0.03463">
        <ele>1065</ele>
        <time>2016-07-31T08:36:41Z</time>
      </trkpt>
      <trkpt lat="42.42869" lon="0.03468">
        <ele>1064.6</ele>
        <time>2016-07-31T08:36:43Z</time>
      </trkpt>
      <trkpt lat="42.42871" lon="0.03471">
        <ele>1064.4</ele>
        <time>2016-07-31T08:36:44Z</time>
      </trkpt>
      <trkpt lat="42.42872" lon="0.03475">
        <ele>1064.2</ele>
        <time>2016-07-31T08:36:45Z</time>
      </trkpt>
      <trkpt lat="42.42875" lon="0.03481">
        <ele>1063.8</ele>
        <time>2016-07-31T08:36:47Z</time>
      </trkpt>
      <trkpt lat="42.42876" lon="0.03485">
        <ele>1063.3</ele>
        <time>2016-07-31T08:36:48Z</time>
      </trkpt>
      <trkpt lat="42.42876" lon="0.03489">
        <ele>1062.9</ele>
        <time>2016-07-31T08:36:49Z</time>
      </trkpt>
      <trkpt lat="42.42875" lon="0.03494">
        <ele>1062.6</ele>
        <time>2016-07-31T08:36:50Z</time>
      </trkpt>
      <trkpt lat="42.42874" lon="0.03498">
        <ele>1062.1</ele>
        <time>2016-07-31T08:36:51Z</time>
      </trkpt>
      <trkpt lat="42.42873" lon="0.03502">
        <ele>1061.6</ele>
        <time>2016-07-31T08:36:52Z</time>
      </trkpt>
      <trkpt lat="42.42873" lon="0.03506">
        <ele>1061.3</ele>
        <time>2016-07-31T08:36:53Z</time>
      </trkpt>
      <trkpt lat="42.42875" lon="0.0351">
        <ele>1061</ele>
        <time>2016-07-31T08:36:54Z</time>
      </trkpt>
      <trkpt lat="42.42876" lon="0.03514">
        <ele>1060.5</ele>
        <time>2016-07-31T08:36:55Z</time>
      </trkpt>
      <trkpt lat="42.42877" lon="0.03519">
        <ele>1059.9</ele>
        <time>2016-07-31T08:36:56Z</time>
      </trkpt>
      <trkpt lat="42.42876" lon="0.03524">
        <ele>1059.5</ele>
        <time>2016-07-31T08:36:57Z</time>
      </trkpt>
      <trkpt lat="42.42875" lon="0.03529">
        <ele>1059.2</ele>
        <time>2016-07-31T08:36:58Z</time>
      </trkpt>
      <trkpt lat="42.42874" lon="0.03534">
        <ele>1058.6</ele>
        <time>2016-07-31T08:36:59Z</time>
      </trkpt>
      <trkpt lat="42.42872" lon="0.03539">
        <ele>1057.9</ele>
        <time>2016-07-31T08:37:00Z</time>
      </trkpt>
      <trkpt lat="42.42871" lon="0.03544">
        <ele>1057.2</ele>
        <time>2016-07-31T08:37:01Z</time>
      </trkpt>
      <trkpt lat="42.42869" lon="0.03549">
        <ele>1056.6</ele>
        <time>2016-07-31T08:37:02Z</time>
      </trkpt>
      <trkpt lat="42.42868" lon="0.03554">
        <ele>1056.2</ele>
        <time>2016-07-31T08:37:03Z</time>
      </trkpt>
      <trkpt lat="42.42869" lon="0.03559">
        <ele>1055.8</ele>
        <time>2016-07-31T08:37:04Z</time>
      </trkpt>
      <trkpt lat="42.4287" lon="0.03564">
        <ele>1055.7</ele>
        <time>2016-07-31T08:37:05Z</time>
      </trkpt>
      <trkpt lat="42.42873" lon="0.03569">
        <ele>1055.7</ele>
        <time>2016-07-31T08:37:06Z</time>
      </trkpt>
      <trkpt lat="42.42876" lon="0.03575">
        <ele>1055.6</ele>
        <time>2016-07-31T08:37:07Z</time>
      </trkpt>
      <trkpt lat="42.42879" lon="0.0358">
        <ele>1054.9</ele>
        <time>2016-07-31T08:37:08Z</time>
      </trkpt>
      <trkpt lat="42.42882" lon="0.03585">
        <ele>1054.2</ele>
        <time>2016-07-31T08:37:09Z</time>
      </trkpt>
      <trkpt lat="42.42885" lon="0.03591">
        <ele>1053.6</ele>
        <time>2016-07-31T08:37:10Z</time>
      </trkpt>
      <trkpt lat="42.42888" lon="0.03596">
        <ele>1053</ele>
        <time>2016-07-31T08:37:11Z</time>
      </trkpt>
      <trkpt lat="42.42892" lon="0.03602">
        <ele>1052.5</ele>
        <time>2016-07-31T08:37:12Z</time>
      </trkpt>
      <trkpt lat="42.42895" lon="0.03608">
        <ele>1051.9</ele>
        <time>2016-07-31T08:37:13Z</time>
      </trkpt>
      <trkpt lat="42.42898" lon="0.03614">
        <ele>1051.4</ele>
        <time>2016-07-31T08:37:14Z</time>
      </trkpt>
      <trkpt lat="42.42902" lon="0.03619">
        <ele>1051</ele>
        <time>2016-07-31T08:37:15Z</time>
      </trkpt>
      <trkpt lat="42.42905" lon="0.03625">
        <ele>1050.6</ele>
        <time>2016-07-31T08:37:16Z</time>
      </trkpt>
      <trkpt lat="42.42908" lon="0.03631">
        <ele>1050.1</ele>
        <time>2016-07-31T08:37:17Z</time>
      </trkpt>
      <trkpt lat="42.42911" lon="0.03636">
        <ele>1049.6</ele>
        <time>2016-07-31T08:37:18Z</time>
      </trkpt>
      <trkpt lat="42.42914" lon="0.03642">
        <ele>1049.2</ele>
        <time>2016-07-31T08:37:19Z</time>
      </trkpt>
      <trkpt lat="42.42917" lon="0.03648">
        <ele>1048.8</ele>
        <time>2016-07-31T08:37:20Z</time>
      </trkpt>
      <trkpt lat="42.4292" lon="0.03652">
        <ele>1048.4</ele>
        <time>2016-07-31T08:37:21Z</time>
      </trkpt>
      <trkpt lat="42.42921" lon="0.03656">
        <ele>1048.2</ele>
        <time>2016-07-31T08:37:22Z</time>
      </trkpt>
      <trkpt lat="42.42923" lon="0.03659">
        <ele>1047.9</ele>
        <time>2016-07-31T08:37:24Z</time>
      </trkpt>
      <trkpt lat="42.42926" lon="0.03661">
        <ele>1047.7</ele>
        <time>2016-07-31T08:37:27Z</time>
      </trkpt>
      <trkpt lat="42.42929" lon="0.03663">
        <ele>1047.6</ele>
        <time>2016-07-31T08:37:29Z</time>
      </trkpt>
      <trkpt lat="42.42931" lon="0.03667">
        <ele>1047.3</ele>
        <time>2016-07-31T08:37:31Z</time>
      </trkpt>
      <trkpt lat="42.42933" lon="0.0367">
        <ele>1047.1</ele>
        <time>2016-07-31T08:37:33Z</time>
      </trkpt>
      <trkpt lat="42.42936" lon="0.03674">
        <ele>1046.8</ele>
        <time>2016-07-31T08:37:35Z</time>
      </trkpt>
      <trkpt lat="42.42939" lon="0.03677">
        <ele>1046.7</ele>
        <time>2016-07-31T08:37:36Z</time>
      </trkpt>
      <trkpt lat="42.42941" lon="0.03679">
        <ele>1046.5</ele>
        <time>2016-07-31T08:37:37Z</time>
      </trkpt>
      <trkpt lat="42.42943" lon="0.03682">
        <ele>1046.3</ele>
        <time>2016-07-31T08:37:38Z</time>
      </trkpt>
      <trkpt lat="42.42946" lon="0.03687">
        <ele>1046</ele>
        <time>2016-07-31T08:37:40Z</time>
      </trkpt>
      <trkpt lat="42.42947" lon="0.03691">
        <ele>1045.9</ele>
        <time>2016-07-31T08:37:41Z</time>
      </trkpt>
      <trkpt lat="42.42948" lon="0.03694">
        <ele>1045.7</ele>
        <time>2016-07-31T08:37:42Z</time>
      </trkpt>
      <trkpt lat="42.42948" lon="0.03698">
        <ele>1045.5</ele>
        <time>2016-07-31T08:37:43Z</time>
      </trkpt>
      <trkpt lat="42.42948" lon="0.03702">
        <ele>1045.4</ele>
        <time>2016-07-31T08:37:44Z</time>
      </trkpt>
      <trkpt lat="42.42947" lon="0.03706">
        <ele>1045.2</ele>
        <time>2016-07-31T08:37:45Z</time>
      </trkpt>
      <trkpt lat="42.42945" lon="0.03712">
        <ele>1044.9</ele>
        <time>2016-07-31T08:37:47Z</time>
      </trkpt>
      <trkpt lat="42.42943" lon="0.03715">
        <ele>1044.8</ele>
        <time>2016-07-31T08:37:48Z</time>
      </trkpt>
      <trkpt lat="42.42939" lon="0.03719">
        <ele>1044.6</ele>
        <time>2016-07-31T08:37:50Z</time>
      </trkpt>
      <trkpt lat="42.42937" lon="0.03722">
        <ele>1044.5</ele>
        <time>2016-07-31T08:37:51Z</time>
      </trkpt>
      <trkpt lat="42.42935" lon="0.03725">
        <ele>1044.2</ele>
        <time>2016-07-31T08:37:52Z</time>
      </trkpt>
      <trkpt lat="42.42933" lon="0.0373">
        <ele>1044</ele>
        <time>2016-07-31T08:37:53Z</time>
      </trkpt>
      <trkpt lat="42.42931" lon="0.03734">
        <ele>1043.7</ele>
        <time>2016-07-31T08:37:54Z</time>
      </trkpt>
      <trkpt lat="42.42929" lon="0.0374">
        <ele>1043.3</ele>
        <time>2016-07-31T08:37:55Z</time>
      </trkpt>
      <trkpt lat="42.42926" lon="0.03745">
        <ele>1043</ele>
        <time>2016-07-31T08:37:56Z</time>
      </trkpt>
      <trkpt lat="42.42923" lon="0.03749">
        <ele>1042.6</ele>
        <time>2016-07-31T08:37:57Z</time>
      </trkpt>
      <trkpt lat="42.42921" lon="0.03752">
        <ele>1042.4</ele>
        <time>2016-07-31T08:37:58Z</time>
      </trkpt>
      <trkpt lat="42.42918" lon="0.03756">
        <ele>1042.1</ele>
        <time>2016-07-31T08:38:00Z</time>
      </trkpt>
      <trkpt lat="42.42918" lon="0.03762">
        <ele>1041.7</ele>
        <time>2016-07-31T08:38:02Z</time>
      </trkpt>
      <trkpt lat="42.42917" lon="0.03768">
        <ele>1041.2</ele>
        <time>2016-07-31T08:38:03Z</time>
      </trkpt>
      <trkpt lat="42.42915" lon="0.03774">
        <ele>1040.7</ele>
        <time>2016-07-31T08:38:04Z</time>
      </trkpt>
      <trkpt lat="42.42913" lon="0.03781">
        <ele>1040.1</ele>
        <time>2016-07-31T08:38:05Z</time>
      </trkpt>
      <trkpt lat="42.42911" lon="0.03788">
        <ele>1039.5</ele>
        <time>2016-07-31T08:38:06Z</time>
      </trkpt>
      <trkpt lat="42.42908" lon="0.03795">
        <ele>1038.9</ele>
        <time>2016-07-31T08:38:07Z</time>
      </trkpt>
      <trkpt lat="42.42907" lon="0.03801">
        <ele>1038.4</ele>
        <time>2016-07-31T08:38:08Z</time>
      </trkpt>
      <trkpt lat="42.42907" lon="0.03806">
        <ele>1037.9</ele>
        <time>2016-07-31T08:38:09Z</time>
      </trkpt>
      <trkpt lat="42.42909" lon="0.0381">
        <ele>1037.6</ele>
        <time>2016-07-31T08:38:10Z</time>
      </trkpt>
      <trkpt lat="42.42912" lon="0.03815">
        <ele>1037.3</ele>
        <time>2016-07-31T08:38:11Z</time>
      </trkpt>
      <trkpt lat="42.42914" lon="0.03819">
        <ele>1037.1</ele>
        <time>2016-07-31T08:38:12Z</time>
      </trkpt>
      <trkpt lat="42.42917" lon="0.03825">
        <ele>1036.7</ele>
        <time>2016-07-31T08:38:13Z</time>
      </trkpt>
      <trkpt lat="42.4292" lon="0.03831">
        <ele>1036.4</ele>
        <time>2016-07-31T08:38:14Z</time>
      </trkpt>
      <trkpt lat="42.42921" lon="0.03838">
        <ele>1035.9</ele>
        <time>2016-07-31T08:38:15Z</time>
      </trkpt>
      <trkpt lat="42.42922" lon="0.03845">
        <ele>1035.4</ele>
        <time>2016-07-31T08:38:16Z</time>
      </trkpt>
      <trkpt lat="42.42923" lon="0.03852">
        <ele>1034.8</ele>
        <time>2016-07-31T08:38:17Z</time>
      </trkpt>
      <trkpt lat="42.42923" lon="0.0386">
        <ele>1034.2</ele>
        <time>2016-07-31T08:38:18Z</time>
      </trkpt>
      <trkpt lat="42.42922" lon="0.03867">
        <ele>1033.6</ele>
        <time>2016-07-31T08:38:19Z</time>
      </trkpt>
      <trkpt lat="42.42922" lon="0.03874">
        <ele>1033</ele>
        <time>2016-07-31T08:38:20Z</time>
      </trkpt>
      <trkpt lat="42.42923" lon="0.03881">
        <ele>1033.9</ele>
        <time>2016-07-31T08:38:21Z</time>
      </trkpt>
      <trkpt lat="42.42926" lon="0.03887">
        <ele>1034.9</ele>
        <time>2016-07-31T08:38:22Z</time>
      </trkpt>
      <trkpt lat="42.42929" lon="0.03893">
        <ele>1035.9</ele>
        <time>2016-07-31T08:38:23Z</time>
      </trkpt>
      <trkpt lat="42.42933" lon="0.03897">
        <ele>1036.9</ele>
        <time>2016-07-31T08:38:24Z</time>
      </trkpt>
      <trkpt lat="42.42937" lon="0.03902">
        <ele>1037.8</ele>
        <time>2016-07-31T08:38:25Z</time>
      </trkpt>
      <trkpt lat="42.42941" lon="0.03906">
        <ele>1038.8</ele>
        <time>2016-07-31T08:38:26Z</time>
      </trkpt>
      <trkpt lat="42.42945" lon="0.03911">
        <ele>1039.8</ele>
        <time>2016-07-31T08:38:27Z</time>
      </trkpt>
      <trkpt lat="42.42948" lon="0.03916">
        <ele>1040.8</ele>
        <time>2016-07-31T08:38:28Z</time>
      </trkpt>
      <trkpt lat="42.42952" lon="0.03921">
        <ele>1041.9</ele>
        <time>2016-07-31T08:38:29Z</time>
      </trkpt>
      <trkpt lat="42.42955" lon="0.03927">
        <ele>1043</ele>
        <time>2016-07-31T08:38:30Z</time>
      </trkpt>
      <trkpt lat="42.42958" lon="0.03932">
        <ele>1044.1</ele>
        <time>2016-07-31T08:38:31Z</time>
      </trkpt>
      <trkpt lat="42.42961" lon="0.03937">
        <ele>1044.1</ele>
        <time>2016-07-31T08:38:32Z</time>
      </trkpt>
      <trkpt lat="42.42964" lon="0.03942">
        <ele>1043.9</ele>
        <time>2016-07-31T08:38:33Z</time>
      </trkpt>
      <trkpt lat="42.42967" lon="0.03946">
        <ele>1043.5</ele>
        <time>2016-07-31T08:38:34Z</time>
      </trkpt>
      <trkpt lat="42.4297" lon="0.03951">
        <ele>1043.2</ele>
        <time>2016-07-31T08:38:35Z</time>
      </trkpt>
      <trkpt lat="42.42973" lon="0.03955">
        <ele>1042.8</ele>
        <time>2016-07-31T08:38:36Z</time>
      </trkpt>
      <trkpt lat="42.42976" lon="0.03958">
        <ele>1042.4</ele>
        <time>2016-07-31T08:38:37Z</time>
      </trkpt>
      <trkpt lat="42.42978" lon="0.03961">
        <ele>1042.2</ele>
        <time>2016-07-31T08:38:38Z</time>
      </trkpt>
      <trkpt lat="42.42981" lon="0.03964">
        <ele>1041.8</ele>
        <time>2016-07-31T08:38:40Z</time>
      </trkpt>
      <trkpt lat="42.42984" lon="0.03965">
        <ele>1041.2</ele>
        <time>2016-07-31T08:38:42Z</time>
      </trkpt>
      <trkpt lat="42.42986" lon="0.03966">
        <ele>1040.5</ele>
        <time>2016-07-31T08:38:44Z</time>
      </trkpt>
      <trkpt lat="42.42991" lon="0.03968">
        <ele>1039.6</ele>
        <time>2016-07-31T08:38:46Z</time>
      </trkpt>
      <trkpt lat="42.42993" lon="0.03969">
        <ele>1039</ele>
        <time>2016-07-31T08:38:47Z</time>
      </trkpt>
      <trkpt lat="42.42998" lon="0.0397">
        <ele>1037.6</ele>
        <time>2016-07-31T08:38:49Z</time>
      </trkpt>
      <trkpt lat="42.43001" lon="0.03971">
        <ele>1036.7</ele>
        <time>2016-07-31T08:38:50Z</time>
      </trkpt>
      <trkpt lat="42.43005" lon="0.03972">
        <ele>1035.8</ele>
        <time>2016-07-31T08:38:51Z</time>
      </trkpt>
      <trkpt lat="42.43008" lon="0.03974">
        <ele>1035.2</ele>
        <time>2016-07-31T08:38:52Z</time>
      </trkpt>
      <trkpt lat="42.43011" lon="0.03976">
        <ele>1034.7</ele>
        <time>2016-07-31T08:38:53Z</time>
      </trkpt>
      <trkpt lat="42.43015" lon="0.03979">
        <ele>1034.2</ele>
        <time>2016-07-31T08:38:54Z</time>
      </trkpt>
      <trkpt lat="42.43018" lon="0.03983">
        <ele>1033.9</ele>
        <time>2016-07-31T08:38:55Z</time>
      </trkpt>
      <trkpt lat="42.43022" lon="0.03987">
        <ele>1033.4</ele>
        <time>2016-07-31T08:38:56Z</time>
      </trkpt>
      <trkpt lat="42.43026" lon="0.03991">
        <ele>1033</ele>
        <time>2016-07-31T08:38:57Z</time>
      </trkpt>
      <trkpt lat="42.43029" lon="0.03995">
        <ele>1032.8</ele>
        <time>2016-07-31T08:38:58Z</time>
      </trkpt>
      <trkpt lat="42.43032" lon="0.03999">
        <ele>1032.9</ele>
        <time>2016-07-31T08:38:59Z</time>
      </trkpt>
      <trkpt lat="42.43034" lon="0.04004">
        <ele>1033.2</ele>
        <time>2016-07-31T08:39:00Z</time>
      </trkpt>
      <trkpt lat="42.43036" lon="0.04007">
        <ele>1033.4</ele>
        <time>2016-07-31T08:39:01Z</time>
      </trkpt>
      <trkpt lat="42.4304" lon="0.04012">
        <ele>1032.9</ele>
        <time>2016-07-31T08:39:03Z</time>
      </trkpt>
      <trkpt lat="42.43045" lon="0.04015">
        <ele>1032</ele>
        <time>2016-07-31T08:39:05Z</time>
      </trkpt>
      <trkpt lat="42.43049" lon="0.04017">
        <ele>1031.3</ele>
        <time>2016-07-31T08:39:06Z</time>
      </trkpt>
      <trkpt lat="42.43053" lon="0.0402">
        <ele>1030.6</ele>
        <time>2016-07-31T08:39:07Z</time>
      </trkpt>
      <trkpt lat="42.43056" lon="0.04023">
        <ele>1030</ele>
        <time>2016-07-31T08:39:08Z</time>
      </trkpt>
      <trkpt lat="42.4306" lon="0.04028">
        <ele>1029.5</ele>
        <time>2016-07-31T08:39:09Z</time>
      </trkpt>
      <trkpt lat="42.43064" lon="0.04032">
        <ele>1029.2</ele>
        <time>2016-07-31T08:39:10Z</time>
      </trkpt>
      <trkpt lat="42.43066" lon="0.04036">
        <ele>1029.1</ele>
        <time>2016-07-31T08:39:11Z</time>
      </trkpt>
      <trkpt lat="42.43068" lon="0.04039">
        <ele>1029</ele>
        <time>2016-07-31T08:39:12Z</time>
      </trkpt>
      <trkpt lat="42.43071" lon="0.04044">
        <ele>1028.9</ele>
        <time>2016-07-31T08:39:14Z</time>
      </trkpt>
      <trkpt lat="42.43076" lon="0.04049">
        <ele>1028.7</ele>
        <time>2016-07-31T08:39:16Z</time>
      </trkpt>
      <trkpt lat="42.43078" lon="0.04053">
        <ele>1028.6</ele>
        <time>2016-07-31T08:39:17Z</time>
      </trkpt>
      <trkpt lat="42.43081" lon="0.04058">
        <ele>1028.9</ele>
        <time>2016-07-31T08:39:18Z</time>
      </trkpt>
      <trkpt lat="42.43083" lon="0.04063">
        <ele>1029.3</ele>
        <time>2016-07-31T08:39:19Z</time>
      </trkpt>
      <trkpt lat="42.43085" lon="0.04067">
        <ele>1029.5</ele>
        <time>2016-07-31T08:39:20Z</time>
      </trkpt>
      <trkpt lat="42.43088" lon="0.04072">
        <ele>1029.6</ele>
        <time>2016-07-31T08:39:21Z</time>
      </trkpt>
      <trkpt lat="42.43091" lon="0.04076">
        <ele>1029.6</ele>
        <time>2016-07-31T08:39:22Z</time>
      </trkpt>
      <trkpt lat="42.43094" lon="0.04082">
        <ele>1029.7</ele>
        <time>2016-07-31T08:39:23Z</time>
      </trkpt>
      <trkpt lat="42.43097" lon="0.04087">
        <ele>1029.9</ele>
        <time>2016-07-31T08:39:24Z</time>
      </trkpt>
      <trkpt lat="42.431" lon="0.04093">
        <ele>1030.1</ele>
        <time>2016-07-31T08:39:25Z</time>
      </trkpt>
      <trkpt lat="42.43103" lon="0.04099">
        <ele>1030.3</ele>
        <time>2016-07-31T08:39:26Z</time>
      </trkpt>
      <trkpt lat="42.43106" lon="0.04105">
        <ele>1030.6</ele>
        <time>2016-07-31T08:39:27Z</time>
      </trkpt>
      <trkpt lat="42.43109" lon="0.04111">
        <ele>1031</ele>
        <time>2016-07-31T08:39:28Z</time>
      </trkpt>
      <trkpt lat="42.43111" lon="0.04116">
        <ele>1031.3</ele>
        <time>2016-07-31T08:39:29Z</time>
      </trkpt>
      <trkpt lat="42.43114" lon="0.04122">
        <ele>1031.8</ele>
        <time>2016-07-31T08:39:30Z</time>
      </trkpt>
      <trkpt lat="42.43116" lon="0.04128">
        <ele>1032.2</ele>
        <time>2016-07-31T08:39:31Z</time>
      </trkpt>
      <trkpt lat="42.43117" lon="0.04133">
        <ele>1032.4</ele>
        <time>2016-07-31T08:39:32Z</time>
      </trkpt>
      <trkpt lat="42.4312" lon="0.04138">
        <ele>1032.3</ele>
        <time>2016-07-31T08:39:33Z</time>
      </trkpt>
      <trkpt lat="42.43123" lon="0.04142">
        <ele>1032.1</ele>
        <time>2016-07-31T08:39:34Z</time>
      </trkpt>
      <trkpt lat="42.43128" lon="0.04152">
        <ele>1031.6</ele>
        <time>2016-07-31T08:39:36Z</time>
      </trkpt>
      <trkpt lat="42.43131" lon="0.04156">
        <ele>1030.9</ele>
        <time>2016-07-31T08:39:37Z</time>
      </trkpt>
      <trkpt lat="42.43134" lon="0.0416">
        <ele>1030.1</ele>
        <time>2016-07-31T08:39:38Z</time>
      </trkpt>
      <trkpt lat="42.43138" lon="0.04164">
        <ele>1029.3</ele>
        <time>2016-07-31T08:39:39Z</time>
      </trkpt>
      <trkpt lat="42.43141" lon="0.04168">
        <ele>1028.5</ele>
        <time>2016-07-31T08:39:40Z</time>
      </trkpt>
      <trkpt lat="42.43143" lon="0.04172">
        <ele>1027.9</ele>
        <time>2016-07-31T08:39:41Z</time>
      </trkpt>
      <trkpt lat="42.43146" lon="0.04176">
        <ele>1027.3</ele>
        <time>2016-07-31T08:39:42Z</time>
      </trkpt>
      <trkpt lat="42.4315" lon="0.04179">
        <ele>1026.3</ele>
        <time>2016-07-31T08:39:43Z</time>
      </trkpt>
      <trkpt lat="42.43154" lon="0.04183">
        <ele>1025.2</ele>
        <time>2016-07-31T08:39:44Z</time>
      </trkpt>
      <trkpt lat="42.43157" lon="0.04185">
        <ele>1024.2</ele>
        <time>2016-07-31T08:39:45Z</time>
      </trkpt>
      <trkpt lat="42.43159" lon="0.04188">
        <ele>1023.4</ele>
        <time>2016-07-31T08:39:46Z</time>
      </trkpt>
      <trkpt lat="42.43162" lon="0.04191">
        <ele>1022.8</ele>
        <time>2016-07-31T08:39:47Z</time>
      </trkpt>
      <trkpt lat="42.43164" lon="0.04193">
        <ele>1022.1</ele>
        <time>2016-07-31T08:39:48Z</time>
      </trkpt>
      <trkpt lat="42.43167" lon="0.04197">
        <ele>1021.3</ele>
        <time>2016-07-31T08:39:49Z</time>
      </trkpt>
      <trkpt lat="42.4317" lon="0.042">
        <ele>1020.7</ele>
        <time>2016-07-31T08:39:50Z</time>
      </trkpt>
      <trkpt lat="42.43171" lon="0.04203">
        <ele>1020.3</ele>
        <time>2016-07-31T08:39:51Z</time>
      </trkpt>
      <trkpt lat="42.43173" lon="0.04206">
        <ele>1020.1</ele>
        <time>2016-07-31T08:39:52Z</time>
      </trkpt>
      <trkpt lat="42.43175" lon="0.04209">
        <ele>1019.6</ele>
        <time>2016-07-31T08:39:53Z</time>
      </trkpt>
      <trkpt lat="42.43178" lon="0.04212">
        <ele>1019.1</ele>
        <time>2016-07-31T08:39:54Z</time>
      </trkpt>
      <trkpt lat="42.43181" lon="0.04216">
        <ele>1018.4</ele>
        <time>2016-07-31T08:39:55Z</time>
      </trkpt>
      <trkpt lat="42.43187" lon="0.04224">
        <ele>1017.2</ele>
        <time>2016-07-31T08:39:57Z</time>
      </trkpt>
      <trkpt lat="42.4319" lon="0.04227">
        <ele>1016.4</ele>
        <time>2016-07-31T08:39:58Z</time>
      </trkpt>
      <trkpt lat="42.43193" lon="0.04231">
        <ele>1015.7</ele>
        <time>2016-07-31T08:39:59Z</time>
      </trkpt>
      <trkpt lat="42.43197" lon="0.04235">
        <ele>1014.8</ele>
        <time>2016-07-31T08:40:00Z</time>
      </trkpt>
      <trkpt lat="42.43201" lon="0.04239">
        <ele>1014.1</ele>
        <time>2016-07-31T08:40:01Z</time>
      </trkpt>
      <trkpt lat="42.43204" lon="0.04242">
        <ele>1013.4</ele>
        <time>2016-07-31T08:40:02Z</time>
      </trkpt>
      <trkpt lat="42.43207" lon="0.04245">
        <ele>1012.4</ele>
        <time>2016-07-31T08:40:03Z</time>
      </trkpt>
      <trkpt lat="42.43211" lon="0.04248">
        <ele>1011.3</ele>
        <time>2016-07-31T08:40:04Z</time>
      </trkpt>
      <trkpt lat="42.43214" lon="0.04251">
        <ele>1010.4</ele>
        <time>2016-07-31T08:40:05Z</time>
      </trkpt>
      <trkpt lat="42.43217" lon="0.04254">
        <ele>1009.6</ele>
        <time>2016-07-31T08:40:06Z</time>
      </trkpt>
      <trkpt lat="42.4322" lon="0.04256">
        <ele>1008.8</ele>
        <time>2016-07-31T08:40:07Z</time>
      </trkpt>
      <trkpt lat="42.43223" lon="0.04259">
        <ele>1008</ele>
        <time>2016-07-31T08:40:08Z</time>
      </trkpt>
      <trkpt lat="42.43227" lon="0.04263">
        <ele>1007.3</ele>
        <time>2016-07-31T08:40:09Z</time>
      </trkpt>
      <trkpt lat="42.4323" lon="0.04266">
        <ele>1006.8</ele>
        <time>2016-07-31T08:40:10Z</time>
      </trkpt>
      <trkpt lat="42.43232" lon="0.0427">
        <ele>1006.4</ele>
        <time>2016-07-31T08:40:11Z</time>
      </trkpt>
      <trkpt lat="42.43234" lon="0.04273">
        <ele>1006.1</ele>
        <time>2016-07-31T08:40:12Z</time>
      </trkpt>
      <trkpt lat="42.43238" lon="0.04276">
        <ele>1005.1</ele>
        <time>2016-07-31T08:40:14Z</time>
      </trkpt>
      <trkpt lat="42.43243" lon="0.04279">
        <ele>1003.6</ele>
        <time>2016-07-31T08:40:16Z</time>
      </trkpt>
      <trkpt lat="42.43246" lon="0.04281">
        <ele>1002.5</ele>
        <time>2016-07-31T08:40:17Z</time>
      </trkpt>
      <trkpt lat="42.4325" lon="0.04283">
        <ele>1001.1</ele>
        <time>2016-07-31T08:40:18Z</time>
      </trkpt>
      <trkpt lat="42.43254" lon="0.04286">
        <ele>999.8</ele>
        <time>2016-07-31T08:40:19Z</time>
      </trkpt>
      <trkpt lat="42.43257" lon="0.04288">
        <ele>998.9</ele>
        <time>2016-07-31T08:40:20Z</time>
      </trkpt>
      <trkpt lat="42.4326" lon="0.04291">
        <ele>998.1</ele>
        <time>2016-07-31T08:40:21Z</time>
      </trkpt>
      <trkpt lat="42.43263" lon="0.04294">
        <ele>997.7</ele>
        <time>2016-07-31T08:40:22Z</time>
      </trkpt>
      <trkpt lat="42.43265" lon="0.04297">
        <ele>997.4</ele>
        <time>2016-07-31T08:40:23Z</time>
      </trkpt>
      <trkpt lat="42.43268" lon="0.04299">
        <ele>997</ele>
        <time>2016-07-31T08:40:24Z</time>
      </trkpt>
      <trkpt lat="42.43271" lon="0.043">
        <ele>995.7</ele>
        <time>2016-07-31T08:40:26Z</time>
      </trkpt>
      <trkpt lat="42.43271" lon="0.04295">
        <ele>994.2</ele>
        <time>2016-07-31T08:40:28Z</time>
      </trkpt>
      <trkpt lat="42.4327" lon="0.04291">
        <ele>993.7</ele>
        <time>2016-07-31T08:40:29Z</time>
      </trkpt>
      <trkpt lat="42.43268" lon="0.04287">
        <ele>993.6</ele>
        <time>2016-07-31T08:40:30Z</time>
      </trkpt>
      <trkpt lat="42.43267" lon="0.04282">
        <ele>993.1</ele>
        <time>2016-07-31T08:40:31Z</time>
      </trkpt>
      <trkpt lat="42.43265" lon="0.04276">
        <ele>992.5</ele>
        <time>2016-07-31T08:40:32Z</time>
      </trkpt>
      <trkpt lat="42.43265" lon="0.04271">
        <ele>991.7</ele>
        <time>2016-07-31T08:40:33Z</time>
      </trkpt>
      <trkpt lat="42.43264" lon="0.04266">
        <ele>990.9</ele>
        <time>2016-07-31T08:40:34Z</time>
      </trkpt>
      <trkpt lat="42.43263" lon="0.04261">
        <ele>990.2</ele>
        <time>2016-07-31T08:40:35Z</time>
      </trkpt>
      <trkpt lat="42.43262" lon="0.04257">
        <ele>989.8</ele>
        <time>2016-07-31T08:40:36Z</time>
      </trkpt>
      <trkpt lat="42.4326" lon="0.04253">
        <ele>989.8</ele>
        <time>2016-07-31T08:40:37Z</time>
      </trkpt>
      <trkpt lat="42.43258" lon="0.0425">
        <ele>989.9</ele>
        <time>2016-07-31T08:40:38Z</time>
      </trkpt>
      <trkpt lat="42.43256" lon="0.04245">
        <ele>989.6</ele>
        <time>2016-07-31T08:40:39Z</time>
      </trkpt>
      <trkpt lat="42.43255" lon="0.04239">
        <ele>989.1</ele>
        <time>2016-07-31T08:40:40Z</time>
      </trkpt>
      <trkpt lat="42.43254" lon="0.04234">
        <ele>988.5</ele>
        <time>2016-07-31T08:40:41Z</time>
      </trkpt>
      <trkpt lat="42.43253" lon="0.0423">
        <ele>988</ele>
        <time>2016-07-31T08:40:42Z</time>
      </trkpt>
      <trkpt lat="42.43252" lon="0.04226">
        <ele>987.5</ele>
        <time>2016-07-31T08:40:43Z</time>
      </trkpt>
      <trkpt lat="42.43251" lon="0.04221">
        <ele>987</ele>
        <time>2016-07-31T08:40:44Z</time>
      </trkpt>
      <trkpt lat="42.4325" lon="0.04217">
        <ele>986.4</ele>
        <time>2016-07-31T08:40:45Z</time>
      </trkpt>
      <trkpt lat="42.43249" lon="0.04213">
        <ele>986.1</ele>
        <time>2016-07-31T08:40:46Z</time>
      </trkpt>
      <trkpt lat="42.43247" lon="0.04209">
        <ele>985.9</ele>
        <time>2016-07-31T08:40:47Z</time>
      </trkpt>
      <trkpt lat="42.43246" lon="0.04205">
        <ele>986</ele>
        <time>2016-07-31T08:40:48Z</time>
      </trkpt>
      <trkpt lat="42.43244" lon="0.042">
        <ele>986</ele>
        <time>2016-07-31T08:40:49Z</time>
      </trkpt>
      <trkpt lat="42.43243" lon="0.04195">
        <ele>985.5</ele>
        <time>2016-07-31T08:40:50Z</time>
      </trkpt>
      <trkpt lat="42.43243" lon="0.04189">
        <ele>985.2</ele>
        <time>2016-07-31T08:40:51Z</time>
      </trkpt>
      <trkpt lat="42.43242" lon="0.04185">
        <ele>985</ele>
        <time>2016-07-31T08:40:52Z</time>
      </trkpt>
      <trkpt lat="42.43239" lon="0.0418">
        <ele>985.1</ele>
        <time>2016-07-31T08:40:54Z</time>
      </trkpt>
      <trkpt lat="42.43237" lon="0.04175">
        <ele>985.5</ele>
        <time>2016-07-31T08:40:56Z</time>
      </trkpt>
      <trkpt lat="42.43237" lon="0.0417">
        <ele>984.8</ele>
        <time>2016-07-31T08:40:58Z</time>
      </trkpt>
      <trkpt lat="42.43239" lon="0.04165">
        <ele>983.3</ele>
        <time>2016-07-31T08:41:00Z</time>
      </trkpt>
      <trkpt lat="42.4324" lon="0.0416">
        <ele>982</ele>
        <time>2016-07-31T08:41:02Z</time>
      </trkpt>
      <trkpt lat="42.43239" lon="0.04152">
        <ele>981.3</ele>
        <time>2016-07-31T08:41:04Z</time>
      </trkpt>
      <trkpt lat="42.43239" lon="0.04146">
        <ele>980.4</ele>
        <time>2016-07-31T08:41:06Z</time>
      </trkpt>
      <trkpt lat="42.4324" lon="0.04139">
        <ele>978.6</ele>
        <time>2016-07-31T08:41:08Z</time>
      </trkpt>
      <trkpt lat="42.43243" lon="0.04136">
        <ele>977</ele>
        <time>2016-07-31T08:41:10Z</time>
      </trkpt>
      <trkpt lat="42.43247" lon="0.04135">
        <ele>975.1</ele>
        <time>2016-07-31T08:41:12Z</time>
      </trkpt>
      <trkpt lat="42.4325" lon="0.0413">
        <ele>973.1</ele>
        <time>2016-07-31T08:41:14Z</time>
      </trkpt>
      <trkpt lat="42.43251" lon="0.04126">
        <ele>972.2</ele>
        <time>2016-07-31T08:41:15Z</time>
      </trkpt>
      <trkpt lat="42.43252" lon="0.04122">
        <ele>971.7</ele>
        <time>2016-07-31T08:41:16Z</time>
      </trkpt>
      <trkpt lat="42.43254" lon="0.0412">
        <ele>970.5</ele>
        <time>2016-07-31T08:41:19Z</time>
      </trkpt>
      <trkpt lat="42.43258" lon="0.04122">
        <ele>969</ele>
        <time>2016-07-31T08:41:21Z</time>
      </trkpt>
      <trkpt lat="42.43261" lon="0.04123">
        <ele>967.9</ele>
        <time>2016-07-31T08:41:23Z</time>
      </trkpt>
      <trkpt lat="42.43265" lon="0.04125">
        <ele>966.1</ele>
        <time>2016-07-31T08:41:25Z</time>
      </trkpt>
      <trkpt lat="42.4327" lon="0.04125">
        <ele>964.1</ele>
        <time>2016-07-31T08:41:27Z</time>
      </trkpt>
      <trkpt lat="42.43273" lon="0.04126">
        <ele>963</ele>
        <time>2016-07-31T08:41:28Z</time>
      </trkpt>
      <trkpt lat="42.43277" lon="0.04128">
        <ele>961.6</ele>
        <time>2016-07-31T08:41:30Z</time>
      </trkpt>
      <trkpt lat="42.43279" lon="0.04131">
        <ele>961</ele>
        <time>2016-07-31T08:41:32Z</time>
      </trkpt>
      <trkpt lat="42.43281" lon="0.04135">
        <ele>960.7</ele>
        <time>2016-07-31T08:41:34Z</time>
      </trkpt>
      <trkpt lat="42.43283" lon="0.04142">
        <ele>960.7</ele>
        <time>2016-07-31T08:41:36Z</time>
      </trkpt>
      <trkpt lat="42.43285" lon="0.04146">
        <ele>960.4</ele>
        <time>2016-07-31T08:41:37Z</time>
      </trkpt>
      <trkpt lat="42.43286" lon="0.04149">
        <ele>960.2</ele>
        <time>2016-07-31T08:41:38Z</time>
      </trkpt>
      <trkpt lat="42.43288" lon="0.04153">
        <ele>960.1</ele>
        <time>2016-07-31T08:41:39Z</time>
      </trkpt>
      <trkpt lat="42.43289" lon="0.04158">
        <ele>960.1</ele>
        <time>2016-07-31T08:41:41Z</time>
      </trkpt>
      <trkpt lat="42.43291" lon="0.04163">
        <ele>960</ele>
        <time>2016-07-31T08:41:43Z</time>
      </trkpt>
      <trkpt lat="42.43291" lon="0.04169">
        <ele>960.5</ele>
        <time>2016-07-31T08:41:45Z</time>
      </trkpt>
      <trkpt lat="42.43291" lon="0.04173">
        <ele>961.3</ele>
        <time>2016-07-31T08:41:47Z</time>
      </trkpt>
      <trkpt lat="42.43291" lon="0.04178">
        <ele>961.5</ele>
        <time>2016-07-31T08:41:49Z</time>
      </trkpt>
      <trkpt lat="42.43295" lon="0.04184">
        <ele>961.1</ele>
        <time>2016-07-31T08:41:51Z</time>
      </trkpt>
      <trkpt lat="42.43298" lon="0.04188">
        <ele>960.6</ele>
        <time>2016-07-31T08:41:52Z</time>
      </trkpt>
      <trkpt lat="42.433" lon="0.04191">
        <ele>960.1</ele>
        <time>2016-07-31T08:41:53Z</time>
      </trkpt>
      <trkpt lat="42.43303" lon="0.04193">
        <ele>959.6</ele>
        <time>2016-07-31T08:41:54Z</time>
      </trkpt>
      <trkpt lat="42.43305" lon="0.04195">
        <ele>958.9</ele>
        <time>2016-07-31T08:41:55Z</time>
      </trkpt>
      <trkpt lat="42.43308" lon="0.04198">
        <ele>958.3</ele>
        <time>2016-07-31T08:41:56Z</time>
      </trkpt>
      <trkpt lat="42.4331" lon="0.04201">
        <ele>958</ele>
        <time>2016-07-31T08:41:57Z</time>
      </trkpt>
      <trkpt lat="42.43312" lon="0.04204">
        <ele>957.7</ele>
        <time>2016-07-31T08:41:58Z</time>
      </trkpt>
      <trkpt lat="42.43314" lon="0.04207">
        <ele>957.2</ele>
        <time>2016-07-31T08:41:59Z</time>
      </trkpt>
      <trkpt lat="42.43318" lon="0.04209">
        <ele>956.4</ele>
        <time>2016-07-31T08:42:00Z</time>
      </trkpt>
      <trkpt lat="42.43325" lon="0.04212">
        <ele>954.7</ele>
        <time>2016-07-31T08:42:02Z</time>
      </trkpt>
      <trkpt lat="42.43329" lon="0.04215">
        <ele>954.1</ele>
        <time>2016-07-31T08:42:03Z</time>
      </trkpt>
      <trkpt lat="42.43333" lon="0.04219">
        <ele>953.7</ele>
        <time>2016-07-31T08:42:04Z</time>
      </trkpt>
      <trkpt lat="42.43337" lon="0.04223">
        <ele>953.3</ele>
        <time>2016-07-31T08:42:05Z</time>
      </trkpt>
      <trkpt lat="42.4334" lon="0.04227">
        <ele>953.2</ele>
        <time>2016-07-31T08:42:06Z</time>
      </trkpt>
      <trkpt lat="42.43343" lon="0.04232">
        <ele>953.3</ele>
        <time>2016-07-31T08:42:07Z</time>
      </trkpt>
      <trkpt lat="42.43346" lon="0.04237">
        <ele>953.4</ele>
        <time>2016-07-31T08:42:08Z</time>
      </trkpt>
      <trkpt lat="42.43349" lon="0.04242">
        <ele>953.5</ele>
        <time>2016-07-31T08:42:09Z</time>
      </trkpt>
      <trkpt lat="42.43353" lon="0.04245">
        <ele>953.1</ele>
        <time>2016-07-31T08:42:10Z</time>
      </trkpt>
      <trkpt lat="42.43356" lon="0.04248">
        <ele>952.6</ele>
        <time>2016-07-31T08:42:11Z</time>
      </trkpt>
      <trkpt lat="42.4336" lon="0.04249">
        <ele>951.8</ele>
        <time>2016-07-31T08:42:12Z</time>
      </trkpt>
      <trkpt lat="42.43363" lon="0.04249">
        <ele>950.8</ele>
        <time>2016-07-31T08:42:13Z</time>
      </trkpt>
      <trkpt lat="42.43366" lon="0.0425">
        <ele>949.9</ele>
        <time>2016-07-31T08:42:14Z</time>
      </trkpt>
      <trkpt lat="42.4337" lon="0.04251">
        <ele>948.9</ele>
        <time>2016-07-31T08:42:16Z</time>
      </trkpt>
      <trkpt lat="42.43372" lon="0.04254">
        <ele>948.9</ele>
        <time>2016-07-31T08:42:18Z</time>
      </trkpt>
      <trkpt lat="42.43373" lon="0.04259">
        <ele>949.7</ele>
        <time>2016-07-31T08:42:20Z</time>
      </trkpt>
      <trkpt lat="42.43374" lon="0.04264">
        <ele>950.8</ele>
        <time>2016-07-31T08:42:23Z</time>
      </trkpt>
      <trkpt lat="42.43376" lon="0.04267">
        <ele>950.6</ele>
        <time>2016-07-31T08:42:25Z</time>
      </trkpt>
      <trkpt lat="42.43381" lon="0.04271">
        <ele>949.5</ele>
        <time>2016-07-31T08:42:27Z</time>
      </trkpt>
      <trkpt lat="42.43384" lon="0.04273">
        <ele>948.9</ele>
        <time>2016-07-31T08:42:28Z</time>
      </trkpt>
      <trkpt lat="42.43386" lon="0.04275">
        <ele>948.3</ele>
        <time>2016-07-31T08:42:29Z</time>
      </trkpt>
      <trkpt lat="42.43389" lon="0.04277">
        <ele>947.5</ele>
        <time>2016-07-31T08:42:31Z</time>
      </trkpt>
      <trkpt lat="42.43393" lon="0.04281">
        <ele>946.7</ele>
        <time>2016-07-31T08:42:33Z</time>
      </trkpt>
      <trkpt lat="42.43397" lon="0.04281">
        <ele>944.9</ele>
        <time>2016-07-31T08:42:35Z</time>
      </trkpt>
      <trkpt lat="42.43402" lon="0.0428">
        <ele>942.8</ele>
        <time>2016-07-31T08:42:37Z</time>
      </trkpt>
      <trkpt lat="42.43405" lon="0.04281">
        <ele>941.7</ele>
        <time>2016-07-31T08:42:40Z</time>
      </trkpt>
      <trkpt lat="42.43407" lon="0.04278">
        <ele>940.3</ele>
        <time>2016-07-31T08:42:45Z</time>
      </trkpt>
      <trkpt lat="42.4341" lon="0.04277">
        <ele>938.9</ele>
        <time>2016-07-31T08:42:48Z</time>
      </trkpt>
      <trkpt lat="42.43412" lon="0.0428">
        <ele>938.4</ele>
        <time>2016-07-31T08:42:50Z</time>
      </trkpt>
      <trkpt lat="42.43415" lon="0.04282">
        <ele>937.6</ele>
        <time>2016-07-31T08:42:52Z</time>
      </trkpt>
      <trkpt lat="42.43418" lon="0.04285">
        <ele>937.1</ele>
        <time>2016-07-31T08:42:54Z</time>
      </trkpt>
      <trkpt lat="42.43419" lon="0.04291">
        <ele>937.9</ele>
        <time>2016-07-31T08:42:56Z</time>
      </trkpt>
      <trkpt lat="42.43419" lon="0.04295">
        <ele>938.5</ele>
        <time>2016-07-31T08:42:57Z</time>
      </trkpt>
      <trkpt lat="42.43419" lon="0.04301">
        <ele>939.9</ele>
        <time>2016-07-31T08:42:59Z</time>
      </trkpt>
      <trkpt lat="42.43421" lon="0.04307">
        <ele>939.9</ele>
        <time>2016-07-31T08:43:01Z</time>
      </trkpt>
      <trkpt lat="42.43425" lon="0.0431">
        <ele>938.9</ele>
        <time>2016-07-31T08:43:03Z</time>
      </trkpt>
      <trkpt lat="42.43427" lon="0.04312">
        <ele>938.1</ele>
        <time>2016-07-31T08:43:08Z</time>
      </trkpt>
      <trkpt lat="42.4343" lon="0.04314">
        <ele>937.4</ele>
        <time>2016-07-31T08:43:12Z</time>
      </trkpt>
      <trkpt lat="42.43433" lon="0.04316">
        <ele>936.5</ele>
        <time>2016-07-31T08:43:15Z</time>
      </trkpt>
      <trkpt lat="42.43435" lon="0.04319">
        <ele>936.2</ele>
        <time>2016-07-31T08:43:21Z</time>
      </trkpt>
      <trkpt lat="42.43438" lon="0.0432">
        <ele>934.8</ele>
        <time>2016-07-31T08:43:30Z</time>
      </trkpt>
      <trkpt lat="42.43444" lon="0.04324">
        <ele>933.2</ele>
        <time>2016-07-31T08:44:07Z</time>
      </trkpt>
      <trkpt lat="42.43446" lon="0.04329">
        <ele>932.8</ele>
        <time>2016-07-31T08:44:10Z</time>
      </trkpt>
      <trkpt lat="42.43448" lon="0.04332">
        <ele>932.5</ele>
        <time>2016-07-31T08:44:16Z</time>
      </trkpt>
      <trkpt lat="42.43451" lon="0.04331">
        <ele>931.1</ele>
        <time>2016-07-31T08:44:27Z</time>
      </trkpt>
      <trkpt lat="42.43454" lon="0.0433">
        <ele>929.5</ele>
        <time>2016-07-31T08:44:32Z</time>
      </trkpt>
      <trkpt lat="42.43457" lon="0.0433">
        <ele>928.1</ele>
        <time>2016-07-31T08:44:38Z</time>
      </trkpt>
      <trkpt lat="42.4346" lon="0.04331">
        <ele>926.7</ele>
        <time>2016-07-31T08:44:42Z</time>
      </trkpt>
      <trkpt lat="42.43463" lon="0.04328">
        <ele>925</ele>
        <time>2016-07-31T08:44:45Z</time>
      </trkpt>
      <trkpt lat="42.43467" lon="0.04328">
        <ele>923.4</ele>
        <time>2016-07-31T08:44:48Z</time>
      </trkpt>
      <trkpt lat="42.4347" lon="0.0433">
        <ele>922.4</ele>
        <time>2016-07-31T08:44:52Z</time>
      </trkpt>
      <trkpt lat="42.43471" lon="0.04326">
        <ele>921.2</ele>
        <time>2016-07-31T08:44:57Z</time>
      </trkpt>
      <trkpt lat="42.43473" lon="0.04324">
        <ele>919.8</ele>
        <time>2016-07-31T08:45:00Z</time>
      </trkpt>
      <trkpt lat="42.43477" lon="0.04323">
        <ele>918.1</ele>
        <time>2016-07-31T08:45:03Z</time>
      </trkpt>
      <trkpt lat="42.43481" lon="0.04326">
        <ele>917.1</ele>
        <time>2016-07-31T08:45:05Z</time>
      </trkpt>
      <trkpt lat="42.43484" lon="0.04331">
        <ele>916.4</ele>
        <time>2016-07-31T08:45:07Z</time>
      </trkpt>
      <trkpt lat="42.43488" lon="0.04336">
        <ele>915.5</ele>
        <time>2016-07-31T08:45:09Z</time>
      </trkpt>
      <trkpt lat="42.4349" lon="0.04338">
        <ele>915.1</ele>
        <time>2016-07-31T08:45:10Z</time>
      </trkpt>
      <trkpt lat="42.43492" lon="0.04341">
        <ele>914.5</ele>
        <time>2016-07-31T08:45:12Z</time>
      </trkpt>
      <trkpt lat="42.43494" lon="0.04345">
        <ele>914.2</ele>
        <time>2016-07-31T08:45:18Z</time>
      </trkpt>
      <trkpt lat="42.43496" lon="0.04349">
        <ele>914.1</ele>
        <time>2016-07-31T08:45:20Z</time>
      </trkpt>
      <trkpt lat="42.43496" lon="0.04355">
        <ele>914.8</ele>
        <time>2016-07-31T08:45:23Z</time>
      </trkpt>
      <trkpt lat="42.43498" lon="0.0436">
        <ele>914.8</ele>
        <time>2016-07-31T08:45:25Z</time>
      </trkpt>
      <trkpt lat="42.435" lon="0.04364">
        <ele>914.8</ele>
        <time>2016-07-31T08:45:27Z</time>
      </trkpt>
      <trkpt lat="42.43501" lon="0.04368">
        <ele>915</ele>
        <time>2016-07-31T08:45:29Z</time>
      </trkpt>
      <trkpt lat="42.43503" lon="0.04375">
        <ele>915.2</ele>
        <time>2016-07-31T08:45:31Z</time>
      </trkpt>
      <trkpt lat="42.43504" lon="0.04379">
        <ele>915.2</ele>
        <time>2016-07-31T08:45:32Z</time>
      </trkpt>
      <trkpt lat="42.43507" lon="0.04383">
        <ele>914.4</ele>
        <time>2016-07-31T08:45:34Z</time>
      </trkpt>
      <trkpt lat="42.4351" lon="0.04384">
        <ele>913.4</ele>
        <time>2016-07-31T08:45:35Z</time>
      </trkpt>
      <trkpt lat="42.43514" lon="0.04385">
        <ele>912.1</ele>
        <time>2016-07-31T08:45:37Z</time>
      </trkpt>
      <trkpt lat="42.43517" lon="0.04391">
        <ele>911.7</ele>
        <time>2016-07-31T08:45:39Z</time>
      </trkpt>
      <trkpt lat="42.43518" lon="0.04398">
        <ele>912.2</ele>
        <time>2016-07-31T08:45:41Z</time>
      </trkpt>
      <trkpt lat="42.4352" lon="0.04402">
        <ele>912.1</ele>
        <time>2016-07-31T08:45:43Z</time>
      </trkpt>
      <trkpt lat="42.43522" lon="0.04405">
        <ele>911.5</ele>
        <time>2016-07-31T08:45:44Z</time>
      </trkpt>
      <trkpt lat="42.43525" lon="0.04406">
        <ele>910.5</ele>
        <time>2016-07-31T08:45:45Z</time>
      </trkpt>
      <trkpt lat="42.43529" lon="0.04408">
        <ele>909</ele>
        <time>2016-07-31T08:45:47Z</time>
      </trkpt>
      <trkpt lat="42.43532" lon="0.04411">
        <ele>908.2</ele>
        <time>2016-07-31T08:45:49Z</time>
      </trkpt>
      <trkpt lat="42.43536" lon="0.04414">
        <ele>906.9</ele>
        <time>2016-07-31T08:45:51Z</time>
      </trkpt>
      <trkpt lat="42.4354" lon="0.04417">
        <ele>905.7</ele>
        <time>2016-07-31T08:45:53Z</time>
      </trkpt>
      <trkpt lat="42.43543" lon="0.04423">
        <ele>905.4</ele>
        <time>2016-07-31T08:45:55Z</time>
      </trkpt>
      <trkpt lat="42.43545" lon="0.04426">
        <ele>905.2</ele>
        <time>2016-07-31T08:45:56Z</time>
      </trkpt>
      <trkpt lat="42.43547" lon="0.04429">
        <ele>904.8</ele>
        <time>2016-07-31T08:45:57Z</time>
      </trkpt>
      <trkpt lat="42.4355" lon="0.04434">
        <ele>904.1</ele>
        <time>2016-07-31T08:45:59Z</time>
      </trkpt>
      <trkpt lat="42.43553" lon="0.04438">
        <ele>903.6</ele>
        <time>2016-07-31T08:46:00Z</time>
      </trkpt>
      <trkpt lat="42.43555" lon="0.04442">
        <ele>903</ele>
        <time>2016-07-31T08:46:01Z</time>
      </trkpt>
      <trkpt lat="42.43558" lon="0.04446">
        <ele>902.4</ele>
        <time>2016-07-31T08:46:02Z</time>
      </trkpt>
      <trkpt lat="42.4356" lon="0.04449">
        <ele>901.8</ele>
        <time>2016-07-31T08:46:03Z</time>
      </trkpt>
      <trkpt lat="42.43562" lon="0.04452">
        <ele>901.5</ele>
        <time>2016-07-31T08:46:04Z</time>
      </trkpt>
      <trkpt lat="42.43563" lon="0.04457">
        <ele>901.6</ele>
        <time>2016-07-31T08:46:05Z</time>
      </trkpt>
      <trkpt lat="42.43564" lon="0.04463">
        <ele>902.4</ele>
        <time>2016-07-31T08:46:06Z</time>
      </trkpt>
      <trkpt lat="42.43565" lon="0.04467">
        <ele>903</ele>
        <time>2016-07-31T08:46:07Z</time>
      </trkpt>
      <trkpt lat="42.43568" lon="0.04472">
        <ele>902.9</ele>
        <time>2016-07-31T08:46:09Z</time>
      </trkpt>
      <trkpt lat="42.43571" lon="0.04474">
        <ele>902.2</ele>
        <time>2016-07-31T08:46:10Z</time>
      </trkpt>
      <trkpt lat="42.43573" lon="0.04476">
        <ele>901.5</ele>
        <time>2016-07-31T08:46:11Z</time>
      </trkpt>
      <trkpt lat="42.43576" lon="0.04478">
        <ele>900.7</ele>
        <time>2016-07-31T08:46:12Z</time>
      </trkpt>
      <trkpt lat="42.4358" lon="0.04482">
        <ele>899.8</ele>
        <time>2016-07-31T08:46:14Z</time>
      </trkpt>
      <trkpt lat="42.43584" lon="0.04487">
        <ele>898.8</ele>
        <time>2016-07-31T08:46:16Z</time>
      </trkpt>
      <trkpt lat="42.43587" lon="0.04491">
        <ele>898.3</ele>
        <time>2016-07-31T08:46:17Z</time>
      </trkpt>
      <trkpt lat="42.43589" lon="0.04493">
        <ele>898.1</ele>
        <time>2016-07-31T08:46:18Z</time>
      </trkpt>
      <trkpt lat="42.43591" lon="0.04497">
        <ele>897.9</ele>
        <time>2016-07-31T08:46:19Z</time>
      </trkpt>
      <trkpt lat="42.43593" lon="0.04502">
        <ele>897.8</ele>
        <time>2016-07-31T08:46:20Z</time>
      </trkpt>
      <trkpt lat="42.43595" lon="0.04506">
        <ele>897.8</ele>
        <time>2016-07-31T08:46:21Z</time>
      </trkpt>
      <trkpt lat="42.43596" lon="0.04511">
        <ele>898.1</ele>
        <time>2016-07-31T08:46:22Z</time>
      </trkpt>
      <trkpt lat="42.43598" lon="0.04514">
        <ele>898.4</ele>
        <time>2016-07-31T08:46:23Z</time>
      </trkpt>
      <trkpt lat="42.43601" lon="0.0452">
        <ele>898.2</ele>
        <time>2016-07-31T08:46:25Z</time>
      </trkpt>
      <trkpt lat="42.43603" lon="0.04523">
        <ele>897.5</ele>
        <time>2016-07-31T08:46:26Z</time>
      </trkpt>
      <trkpt lat="42.43606" lon="0.04525">
        <ele>896.5</ele>
        <time>2016-07-31T08:46:27Z</time>
      </trkpt>
      <trkpt lat="42.43609" lon="0.04528">
        <ele>895.5</ele>
        <time>2016-07-31T08:46:28Z</time>
      </trkpt>
      <trkpt lat="42.43612" lon="0.04531">
        <ele>894.5</ele>
        <time>2016-07-31T08:46:29Z</time>
      </trkpt>
      <trkpt lat="42.43616" lon="0.04534">
        <ele>893.4</ele>
        <time>2016-07-31T08:46:30Z</time>
      </trkpt>
      <trkpt lat="42.43619" lon="0.04537">
        <ele>892.3</ele>
        <time>2016-07-31T08:46:31Z</time>
      </trkpt>
      <trkpt lat="42.43622" lon="0.04541">
        <ele>891.2</ele>
        <time>2016-07-31T08:46:32Z</time>
      </trkpt>
      <trkpt lat="42.43625" lon="0.04543">
        <ele>890.2</ele>
        <time>2016-07-31T08:46:33Z</time>
      </trkpt>
      <trkpt lat="42.43628" lon="0.04545">
        <ele>889.6</ele>
        <time>2016-07-31T08:46:34Z</time>
      </trkpt>
      <trkpt lat="42.4363" lon="0.04547">
        <ele>889.1</ele>
        <time>2016-07-31T08:46:35Z</time>
      </trkpt>
      <trkpt lat="42.43633" lon="0.04551">
        <ele>888.5</ele>
        <time>2016-07-31T08:46:36Z</time>
      </trkpt>
      <trkpt lat="42.43636" lon="0.04554">
        <ele>888.1</ele>
        <time>2016-07-31T08:46:37Z</time>
      </trkpt>
      <trkpt lat="42.43639" lon="0.04558">
        <ele>887.8</ele>
        <time>2016-07-31T08:46:38Z</time>
      </trkpt>
      <trkpt lat="42.43641" lon="0.04561">
        <ele>887.6</ele>
        <time>2016-07-31T08:46:39Z</time>
      </trkpt>
      <trkpt lat="42.43643" lon="0.04564">
        <ele>887.2</ele>
        <time>2016-07-31T08:46:40Z</time>
      </trkpt>
      <trkpt lat="42.43646" lon="0.04566">
        <ele>886.3</ele>
        <time>2016-07-31T08:46:41Z</time>
      </trkpt>
      <trkpt lat="42.4365" lon="0.04567">
        <ele>885.1</ele>
        <time>2016-07-31T08:46:42Z</time>
      </trkpt>
      <trkpt lat="42.43653" lon="0.04569">
        <ele>884</ele>
        <time>2016-07-31T08:46:43Z</time>
      </trkpt>
      <trkpt lat="42.43656" lon="0.04574">
        <ele>883.4</ele>
        <time>2016-07-31T08:46:45Z</time>
      </trkpt>
      <trkpt lat="42.43658" lon="0.04578">
        <ele>883.4</ele>
        <time>2016-07-31T08:46:46Z</time>
      </trkpt>
      <trkpt lat="42.4366" lon="0.04582">
        <ele>883.3</ele>
        <time>2016-07-31T08:46:47Z</time>
      </trkpt>
      <trkpt lat="42.43663" lon="0.04585">
        <ele>882.9</ele>
        <time>2016-07-31T08:46:48Z</time>
      </trkpt>
      <trkpt lat="42.43665" lon="0.04589">
        <ele>882.4</ele>
        <time>2016-07-31T08:46:49Z</time>
      </trkpt>
      <trkpt lat="42.43672" lon="0.04598">
        <ele>881.5</ele>
        <time>2016-07-31T08:46:52Z</time>
      </trkpt>
      <trkpt lat="42.43674" lon="0.04602">
        <ele>881.3</ele>
        <time>2016-07-31T08:46:53Z</time>
      </trkpt>
      <trkpt lat="42.43675" lon="0.04606">
        <ele>881.4</ele>
        <time>2016-07-31T08:46:54Z</time>
      </trkpt>
      <trkpt lat="42.43676" lon="0.0461">
        <ele>881.7</ele>
        <time>2016-07-31T08:46:55Z</time>
      </trkpt>
      <trkpt lat="42.43677" lon="0.04614">
        <ele>882.3</ele>
        <time>2016-07-31T08:46:56Z</time>
      </trkpt>
      <trkpt lat="42.43677" lon="0.04618">
        <ele>882.9</ele>
        <time>2016-07-31T08:46:57Z</time>
      </trkpt>
      <trkpt lat="42.43679" lon="0.04623">
        <ele>883.2</ele>
        <time>2016-07-31T08:46:58Z</time>
      </trkpt>
      <trkpt lat="42.4368" lon="0.04626">
        <ele>883.2</ele>
        <time>2016-07-31T08:46:59Z</time>
      </trkpt>
      <trkpt lat="42.43682" lon="0.0463">
        <ele>883.4</ele>
        <time>2016-07-31T08:47:00Z</time>
      </trkpt>
      <trkpt lat="42.43683" lon="0.04634">
        <ele>883.5</ele>
        <time>2016-07-31T08:47:01Z</time>
      </trkpt>
      <trkpt lat="42.43685" lon="0.04639">
        <ele>883.7</ele>
        <time>2016-07-31T08:47:02Z</time>
      </trkpt>
      <trkpt lat="42.43687" lon="0.04643">
        <ele>883.7</ele>
        <time>2016-07-31T08:47:03Z</time>
      </trkpt>
      <trkpt lat="42.43689" lon="0.04646">
        <ele>883.2</ele>
        <time>2016-07-31T08:47:04Z</time>
      </trkpt>
      <trkpt lat="42.43692" lon="0.04649">
        <ele>882.5</ele>
        <time>2016-07-31T08:47:05Z</time>
      </trkpt>
      <trkpt lat="42.43694" lon="0.04652">
        <ele>881.9</ele>
        <time>2016-07-31T08:47:06Z</time>
      </trkpt>
      <trkpt lat="42.43698" lon="0.04656">
        <ele>881</ele>
        <time>2016-07-31T08:47:08Z</time>
      </trkpt>
      <trkpt lat="42.43702" lon="0.04663">
        <ele>880.2</ele>
        <time>2016-07-31T08:47:10Z</time>
      </trkpt>
      <trkpt lat="42.43706" lon="0.04667">
        <ele>879.4</ele>
        <time>2016-07-31T08:47:11Z</time>
      </trkpt>
      <trkpt lat="42.43709" lon="0.04671">
        <ele>878.7</ele>
        <time>2016-07-31T08:47:12Z</time>
      </trkpt>
      <trkpt lat="42.43712" lon="0.04674">
        <ele>878.3</ele>
        <time>2016-07-31T08:47:13Z</time>
      </trkpt>
      <trkpt lat="42.43715" lon="0.04678">
        <ele>877.8</ele>
        <time>2016-07-31T08:47:15Z</time>
      </trkpt>
      <trkpt lat="42.43718" lon="0.04681">
        <ele>877.3</ele>
        <time>2016-07-31T08:47:16Z</time>
      </trkpt>
      <trkpt lat="42.43721" lon="0.04684">
        <ele>876.6</ele>
        <time>2016-07-31T08:47:17Z</time>
      </trkpt>
      <trkpt lat="42.43725" lon="0.04687">
        <ele>875.9</ele>
        <time>2016-07-31T08:47:18Z</time>
      </trkpt>
      <trkpt lat="42.43728" lon="0.04689">
        <ele>875.3</ele>
        <time>2016-07-31T08:47:19Z</time>
      </trkpt>
      <trkpt lat="42.43732" lon="0.04694">
        <ele>874.4</ele>
        <time>2016-07-31T08:47:21Z</time>
      </trkpt>
      <trkpt lat="42.43736" lon="0.04699">
        <ele>873.9</ele>
        <time>2016-07-31T08:47:23Z</time>
      </trkpt>
      <trkpt lat="42.43738" lon="0.04702">
        <ele>873.8</ele>
        <time>2016-07-31T08:47:24Z</time>
      </trkpt>
      <trkpt lat="42.4374" lon="0.04705">
        <ele>873.7</ele>
        <time>2016-07-31T08:47:25Z</time>
      </trkpt>
      <trkpt lat="42.43742" lon="0.04708">
        <ele>873.6</ele>
        <time>2016-07-31T08:47:26Z</time>
      </trkpt>
      <trkpt lat="42.43744" lon="0.04712">
        <ele>873.2</ele>
        <time>2016-07-31T08:47:27Z</time>
      </trkpt>
      <trkpt lat="42.43747" lon="0.04717">
        <ele>873</ele>
        <time>2016-07-31T08:47:28Z</time>
      </trkpt>
      <trkpt lat="42.43749" lon="0.04721">
        <ele>872.7</ele>
        <time>2016-07-31T08:47:29Z</time>
      </trkpt>
      <trkpt lat="42.43751" lon="0.04725">
        <ele>872.5</ele>
        <time>2016-07-31T08:47:30Z</time>
      </trkpt>
      <trkpt lat="42.43754" lon="0.0473">
        <ele>872.3</ele>
        <time>2016-07-31T08:47:31Z</time>
      </trkpt>
      <trkpt lat="42.43757" lon="0.04734">
        <ele>871.9</ele>
        <time>2016-07-31T08:47:32Z</time>
      </trkpt>
      <trkpt lat="42.43762" lon="0.04742">
        <ele>870.8</ele>
        <time>2016-07-31T08:47:34Z</time>
      </trkpt>
      <trkpt lat="42.43765" lon="0.04746">
        <ele>870</ele>
        <time>2016-07-31T08:47:35Z</time>
      </trkpt>
      <trkpt lat="42.43769" lon="0.0475">
        <ele>869</ele>
        <time>2016-07-31T08:47:36Z</time>
      </trkpt>
      <trkpt lat="42.43772" lon="0.04754">
        <ele>868.3</ele>
        <time>2016-07-31T08:47:37Z</time>
      </trkpt>
      <trkpt lat="42.43775" lon="0.04758">
        <ele>867.8</ele>
        <time>2016-07-31T08:47:38Z</time>
      </trkpt>
      <trkpt lat="42.43777" lon="0.04762">
        <ele>867.2</ele>
        <time>2016-07-31T08:47:39Z</time>
      </trkpt>
      <trkpt lat="42.4378" lon="0.04766">
        <ele>866.7</ele>
        <time>2016-07-31T08:47:40Z</time>
      </trkpt>
      <trkpt lat="42.43782" lon="0.04771">
        <ele>866.2</ele>
        <time>2016-07-31T08:47:41Z</time>
      </trkpt>
      <trkpt lat="42.43785" lon="0.04776">
        <ele>865.6</ele>
        <time>2016-07-31T08:47:42Z</time>
      </trkpt>
      <trkpt lat="42.43788" lon="0.04779">
        <ele>864.8</ele>
        <time>2016-07-31T08:47:43Z</time>
      </trkpt>
      <trkpt lat="42.43791" lon="0.04782">
        <ele>863.8</ele>
        <time>2016-07-31T08:47:44Z</time>
      </trkpt>
      <trkpt lat="42.43794" lon="0.04783">
        <ele>862.7</ele>
        <time>2016-07-31T08:47:45Z</time>
      </trkpt>
      <trkpt lat="42.43796" lon="0.04784">
        <ele>861.8</ele>
        <time>2016-07-31T08:47:46Z</time>
      </trkpt>
      <trkpt lat="42.43799" lon="0.04785">
        <ele>860.8</ele>
        <time>2016-07-31T08:47:47Z</time>
      </trkpt>
      <trkpt lat="42.43803" lon="0.04787">
        <ele>859.6</ele>
        <time>2016-07-31T08:47:48Z</time>
      </trkpt>
      <trkpt lat="42.43806" lon="0.04789">
        <ele>858.6</ele>
        <time>2016-07-31T08:47:49Z</time>
      </trkpt>
      <trkpt lat="42.43809" lon="0.04793">
        <ele>857.8</ele>
        <time>2016-07-31T08:47:50Z</time>
      </trkpt>
      <trkpt lat="42.43813" lon="0.04797">
        <ele>857.1</ele>
        <time>2016-07-31T08:47:51Z</time>
      </trkpt>
      <trkpt lat="42.43817" lon="0.048">
        <ele>856.3</ele>
        <time>2016-07-31T08:47:52Z</time>
      </trkpt>
      <trkpt lat="42.4382" lon="0.04803">
        <ele>855.7</ele>
        <time>2016-07-31T08:47:53Z</time>
      </trkpt>
      <trkpt lat="42.43823" lon="0.04805">
        <ele>855.1</ele>
        <time>2016-07-31T08:47:54Z</time>
      </trkpt>
      <trkpt lat="42.43827" lon="0.04812">
        <ele>854.7</ele>
        <time>2016-07-31T08:47:56Z</time>
      </trkpt>
      <trkpt lat="42.43829" lon="0.04815">
        <ele>854.6</ele>
        <time>2016-07-31T08:47:57Z</time>
      </trkpt>
      <trkpt lat="42.43831" lon="0.04818">
        <ele>854.3</ele>
        <time>2016-07-31T08:47:58Z</time>
      </trkpt>
      <trkpt lat="42.43833" lon="0.04821">
        <ele>853.8</ele>
        <time>2016-07-31T08:47:59Z</time>
      </trkpt>
      <trkpt lat="42.43836" lon="0.04823">
        <ele>853.2</ele>
        <time>2016-07-31T08:48:00Z</time>
      </trkpt>
      <trkpt lat="42.4384" lon="0.04825">
        <ele>851.9</ele>
        <time>2016-07-31T08:48:02Z</time>
      </trkpt>
      <trkpt lat="42.43844" lon="0.04828">
        <ele>850.5</ele>
        <time>2016-07-31T08:48:04Z</time>
      </trkpt>
      <trkpt lat="42.43848" lon="0.04831">
        <ele>849.7</ele>
        <time>2016-07-31T08:48:06Z</time>
      </trkpt>
      <trkpt lat="42.43851" lon="0.04835">
        <ele>848.8</ele>
        <time>2016-07-31T08:48:08Z</time>
      </trkpt>
      <trkpt lat="42.43854" lon="0.04841">
        <ele>848.6</ele>
        <time>2016-07-31T08:48:10Z</time>
      </trkpt>
      <trkpt lat="42.43856" lon="0.04844">
        <ele>848.7</ele>
        <time>2016-07-31T08:48:11Z</time>
      </trkpt>
      <trkpt lat="42.43858" lon="0.04849">
        <ele>848.8</ele>
        <time>2016-07-31T08:48:12Z</time>
      </trkpt>
      <trkpt lat="42.43859" lon="0.04852">
        <ele>848.7</ele>
        <time>2016-07-31T08:48:13Z</time>
      </trkpt>
      <trkpt lat="42.43861" lon="0.04856">
        <ele>848.9</ele>
        <time>2016-07-31T08:48:14Z</time>
      </trkpt>
      <trkpt lat="42.43862" lon="0.04861">
        <ele>849.1</ele>
        <time>2016-07-31T08:48:15Z</time>
      </trkpt>
      <trkpt lat="42.43864" lon="0.04865">
        <ele>849.2</ele>
        <time>2016-07-31T08:48:16Z</time>
      </trkpt>
      <trkpt lat="42.43866" lon="0.04869">
        <ele>848.8</ele>
        <time>2016-07-31T08:48:17Z</time>
      </trkpt>
      <trkpt lat="42.43869" lon="0.04871">
        <ele>848</ele>
        <time>2016-07-31T08:48:18Z</time>
      </trkpt>
      <trkpt lat="42.43873" lon="0.04872">
        <ele>846.5</ele>
        <time>2016-07-31T08:48:20Z</time>
      </trkpt>
      <trkpt lat="42.43877" lon="0.04873">
        <ele>844.6</ele>
        <time>2016-07-31T08:48:22Z</time>
      </trkpt>
      <trkpt lat="42.4388" lon="0.04876">
        <ele>843.5</ele>
        <time>2016-07-31T08:48:23Z</time>
      </trkpt>
      <trkpt lat="42.43886" lon="0.04883">
        <ele>842.5</ele>
        <time>2016-07-31T08:48:25Z</time>
      </trkpt>
      <trkpt lat="42.43888" lon="0.04885">
        <ele>841.7</ele>
        <time>2016-07-31T08:48:26Z</time>
      </trkpt>
      <trkpt lat="42.43891" lon="0.04886">
        <ele>840.5</ele>
        <time>2016-07-31T08:48:27Z</time>
      </trkpt>
      <trkpt lat="42.43895" lon="0.04886">
        <ele>838.9</ele>
        <time>2016-07-31T08:48:28Z</time>
      </trkpt>
      <trkpt lat="42.43898" lon="0.04886">
        <ele>837.2</ele>
        <time>2016-07-31T08:48:29Z</time>
      </trkpt>
      <trkpt lat="42.43901" lon="0.04887">
        <ele>835.7</ele>
        <time>2016-07-31T08:48:30Z</time>
      </trkpt>
      <trkpt lat="42.43906" lon="0.04888">
        <ele>833.6</ele>
        <time>2016-07-31T08:48:32Z</time>
      </trkpt>
      <trkpt lat="42.4391" lon="0.04892">
        <ele>832.6</ele>
        <time>2016-07-31T08:48:34Z</time>
      </trkpt>
      <trkpt lat="42.43914" lon="0.04893">
        <ele>830.9</ele>
        <time>2016-07-31T08:48:36Z</time>
      </trkpt>
      <trkpt lat="42.4392" lon="0.04894">
        <ele>828.5</ele>
        <time>2016-07-31T08:48:38Z</time>
      </trkpt>
      <trkpt lat="42.43923" lon="0.04896">
        <ele>827.6</ele>
        <time>2016-07-31T08:48:39Z</time>
      </trkpt>
      <trkpt lat="42.43925" lon="0.04898">
        <ele>827.2</ele>
        <time>2016-07-31T08:48:40Z</time>
      </trkpt>
      <trkpt lat="42.43927" lon="0.04903">
        <ele>827.3</ele>
        <time>2016-07-31T08:48:42Z</time>
      </trkpt>
      <trkpt lat="42.4393" lon="0.04902">
        <ele>825.7</ele>
        <time>2016-07-31T08:48:52Z</time>
      </trkpt>
      <trkpt lat="42.43933" lon="0.04904">
        <ele>824.8</ele>
        <time>2016-07-31T08:48:54Z</time>
      </trkpt>
      <trkpt lat="42.43937" lon="0.04906">
        <ele>823.9</ele>
        <time>2016-07-31T08:48:56Z</time>
      </trkpt>
      <trkpt lat="42.43939" lon="0.04909">
        <ele>823.5</ele>
        <time>2016-07-31T08:48:58Z</time>
      </trkpt>
      <trkpt lat="42.43942" lon="0.04913">
        <ele>823.5</ele>
        <time>2016-07-31T08:49:27Z</time>
      </trkpt>
      <trkpt lat="42.43946" lon="0.04916">
        <ele>822.6</ele>
        <time>2016-07-31T08:49:29Z</time>
      </trkpt>
      <trkpt lat="42.43951" lon="0.04919">
        <ele>821.3</ele>
        <time>2016-07-31T08:49:31Z</time>
      </trkpt>
      <trkpt lat="42.43953" lon="0.0492">
        <ele>820.5</ele>
        <time>2016-07-31T08:49:32Z</time>
      </trkpt>
      <trkpt lat="42.43956" lon="0.04921">
        <ele>819.5</ele>
        <time>2016-07-31T08:49:33Z</time>
      </trkpt>
      <trkpt lat="42.4396" lon="0.04922">
        <ele>818.5</ele>
        <time>2016-07-31T08:49:34Z</time>
      </trkpt>
      <trkpt lat="42.43963" lon="0.04924">
        <ele>817.8</ele>
        <time>2016-07-31T08:49:35Z</time>
      </trkpt>
      <trkpt lat="42.43966" lon="0.04927">
        <ele>817.4</ele>
        <time>2016-07-31T08:49:36Z</time>
      </trkpt>
      <trkpt lat="42.43969" lon="0.04931">
        <ele>817.7</ele>
        <time>2016-07-31T08:49:37Z</time>
      </trkpt>
      <trkpt lat="42.43972" lon="0.04936">
        <ele>818.3</ele>
        <time>2016-07-31T08:49:38Z</time>
      </trkpt>
      <trkpt lat="42.43975" lon="0.0494">
        <ele>818.7</ele>
        <time>2016-07-31T08:49:39Z</time>
      </trkpt>
      <trkpt lat="42.43977" lon="0.04944">
        <ele>818.9</ele>
        <time>2016-07-31T08:49:40Z</time>
      </trkpt>
      <trkpt lat="42.43981" lon="0.04947">
        <ele>818.5</ele>
        <time>2016-07-31T08:49:41Z</time>
      </trkpt>
      <trkpt lat="42.43985" lon="0.0495">
        <ele>818</ele>
        <time>2016-07-31T08:49:42Z</time>
      </trkpt>
      <trkpt lat="42.43988" lon="0.04953">
        <ele>817.7</ele>
        <time>2016-07-31T08:49:43Z</time>
      </trkpt>
      <trkpt lat="42.43992" lon="0.04957">
        <ele>817.5</ele>
        <time>2016-07-31T08:49:44Z</time>
      </trkpt>
      <trkpt lat="42.43995" lon="0.04962">
        <ele>817.9</ele>
        <time>2016-07-31T08:49:45Z</time>
      </trkpt>
      <trkpt lat="42.43998" lon="0.04965">
        <ele>818.1</ele>
        <time>2016-07-31T08:49:46Z</time>
      </trkpt>
      <trkpt lat="42.44" lon="0.04968">
        <ele>818.3</ele>
        <time>2016-07-31T08:49:47Z</time>
      </trkpt>
      <trkpt lat="42.44004" lon="0.0497">
        <ele>817.6</ele>
        <time>2016-07-31T08:49:49Z</time>
      </trkpt>
      <trkpt lat="42.44008" lon="0.04971">
        <ele>816.6</ele>
        <time>2016-07-31T08:49:50Z</time>
      </trkpt>
      <trkpt lat="42.44012" lon="0.04972">
        <ele>815</ele>
        <time>2016-07-31T08:49:51Z</time>
      </trkpt>
      <trkpt lat="42.44018" lon="0.04974">
        <ele>813.6</ele>
        <time>2016-07-31T08:49:52Z</time>
      </trkpt>
      <trkpt lat="42.44022" lon="0.04976">
        <ele>812.6</ele>
        <time>2016-07-31T08:49:53Z</time>
      </trkpt>
      <trkpt lat="42.44027" lon="0.04979">
        <ele>811.9</ele>
        <time>2016-07-31T08:49:54Z</time>
      </trkpt>
      <trkpt lat="42.44032" lon="0.04982">
        <ele>811.3</ele>
        <time>2016-07-31T08:49:55Z</time>
      </trkpt>
      <trkpt lat="42.44037" lon="0.04984">
        <ele>810.5</ele>
        <time>2016-07-31T08:49:56Z</time>
      </trkpt>
      <trkpt lat="42.44042" lon="0.04987">
        <ele>809.6</ele>
        <time>2016-07-31T08:49:57Z</time>
      </trkpt>
      <trkpt lat="42.44047" lon="0.0499">
        <ele>809.6</ele>
        <time>2016-07-31T08:49:58Z</time>
      </trkpt>
      <trkpt lat="42.44052" lon="0.04992">
        <ele>809.4</ele>
        <time>2016-07-31T08:49:59Z</time>
      </trkpt>
      <trkpt lat="42.44057" lon="0.04994">
        <ele>809.4</ele>
        <time>2016-07-31T08:50:00Z</time>
      </trkpt>
      <trkpt lat="42.44061" lon="0.04997">
        <ele>809.7</ele>
        <time>2016-07-31T08:50:01Z</time>
      </trkpt>
      <trkpt lat="42.44066" lon="0.05001">
        <ele>810</ele>
        <time>2016-07-31T08:50:02Z</time>
      </trkpt>
      <trkpt lat="42.4407" lon="0.05003">
        <ele>810.2</ele>
        <time>2016-07-31T08:50:03Z</time>
      </trkpt>
      <trkpt lat="42.44073" lon="0.05006">
        <ele>810.3</ele>
        <time>2016-07-31T08:50:04Z</time>
      </trkpt>
      <trkpt lat="42.44078" lon="0.05007">
        <ele>810</ele>
        <time>2016-07-31T08:50:05Z</time>
      </trkpt>
      <trkpt lat="42.44082" lon="0.05008">
        <ele>809.4</ele>
        <time>2016-07-31T08:50:06Z</time>
      </trkpt>
      <trkpt lat="42.44087" lon="0.05008">
        <ele>808.4</ele>
        <time>2016-07-31T08:50:07Z</time>
      </trkpt>
      <trkpt lat="42.44092" lon="0.05008">
        <ele>807</ele>
        <time>2016-07-31T08:50:08Z</time>
      </trkpt>
      <trkpt lat="42.44096" lon="0.05007">
        <ele>805.6</ele>
        <time>2016-07-31T08:50:09Z</time>
      </trkpt>
      <trkpt lat="42.441" lon="0.05007">
        <ele>804.6</ele>
        <time>2016-07-31T08:50:10Z</time>
      </trkpt>
      <trkpt lat="42.44104" lon="0.05008">
        <ele>804</ele>
        <time>2016-07-31T08:50:11Z</time>
      </trkpt>
      <trkpt lat="42.44107" lon="0.05009">
        <ele>803.8</ele>
        <time>2016-07-31T08:50:12Z</time>
      </trkpt>
      <trkpt lat="42.4411" lon="0.05011">
        <ele>803.7</ele>
        <time>2016-07-31T08:50:13Z</time>
      </trkpt>
      <trkpt lat="42.44113" lon="0.05012">
        <ele>803.5</ele>
        <time>2016-07-31T08:50:14Z</time>
      </trkpt>
      <trkpt lat="42.44116" lon="0.05013">
        <ele>803.3</ele>
        <time>2016-07-31T08:50:15Z</time>
      </trkpt>
      <trkpt lat="42.44119" lon="0.05014">
        <ele>803.3</ele>
        <time>2016-07-31T08:50:16Z</time>
      </trkpt>
      <trkpt lat="42.44121" lon="0.05017">
        <ele>803.7</ele>
        <time>2016-07-31T08:50:17Z</time>
      </trkpt>
      <trkpt lat="42.44124" lon="0.05019">
        <ele>804.2</ele>
        <time>2016-07-31T08:50:18Z</time>
      </trkpt>
      <trkpt lat="42.44127" lon="0.05022">
        <ele>805</ele>
        <time>2016-07-31T08:50:20Z</time>
      </trkpt>
      <trkpt lat="42.44131" lon="0.05025">
        <ele>805</ele>
        <time>2016-07-31T08:50:22Z</time>
      </trkpt>
      <trkpt lat="42.44134" lon="0.05027">
        <ele>805.3</ele>
        <time>2016-07-31T08:50:23Z</time>
      </trkpt>
      <trkpt lat="42.44137" lon="0.0503">
        <ele>805.8</ele>
        <time>2016-07-31T08:50:24Z</time>
      </trkpt>
      <trkpt lat="42.44139" lon="0.05033">
        <ele>806.5</ele>
        <time>2016-07-31T08:50:25Z</time>
      </trkpt>
      <trkpt lat="42.44141" lon="0.05036">
        <ele>807.5</ele>
        <time>2016-07-31T08:50:26Z</time>
      </trkpt>
      <trkpt lat="42.44143" lon="0.05039">
        <ele>808.4</ele>
        <time>2016-07-31T08:50:27Z</time>
      </trkpt>
      <trkpt lat="42.44145" lon="0.05042">
        <ele>809.2</ele>
        <time>2016-07-31T08:50:28Z</time>
      </trkpt>
      <trkpt lat="42.44149" lon="0.05047">
        <ele>810.3</ele>
        <time>2016-07-31T08:50:30Z</time>
      </trkpt>
      <trkpt lat="42.44153" lon="0.0505">
        <ele>810.5</ele>
        <time>2016-07-31T08:50:32Z</time>
      </trkpt>
      <trkpt lat="42.44158" lon="0.05054">
        <ele>811.1</ele>
        <time>2016-07-31T08:50:34Z</time>
      </trkpt>
      <trkpt lat="42.4416" lon="0.05056">
        <ele>811.5</ele>
        <time>2016-07-31T08:50:35Z</time>
      </trkpt>
      <trkpt lat="42.44163" lon="0.05058">
        <ele>811.6</ele>
        <time>2016-07-31T08:50:36Z</time>
      </trkpt>
      <trkpt lat="42.44166" lon="0.05059">
        <ele>811.6</ele>
        <time>2016-07-31T08:50:37Z</time>
      </trkpt>
      <trkpt lat="42.44169" lon="0.05061">
        <ele>811.7</ele>
        <time>2016-07-31T08:50:38Z</time>
      </trkpt>
      <trkpt lat="42.44173" lon="0.05065">
        <ele>812.8</ele>
        <time>2016-07-31T08:50:40Z</time>
      </trkpt>
      <trkpt lat="42.44176" lon="0.05069">
        <ele>813.8</ele>
        <time>2016-07-31T08:50:42Z</time>
      </trkpt>
      <trkpt lat="42.44181" lon="0.05073">
        <ele>814.2</ele>
        <time>2016-07-31T08:50:44Z</time>
      </trkpt>
      <trkpt lat="42.44184" lon="0.05074">
        <ele>814.2</ele>
        <time>2016-07-31T08:50:45Z</time>
      </trkpt>
      <trkpt lat="42.44189" lon="0.05077">
        <ele>814.6</ele>
        <time>2016-07-31T08:50:47Z</time>
      </trkpt>
      <trkpt lat="42.44193" lon="0.05081">
        <ele>815.3</ele>
        <time>2016-07-31T08:50:49Z</time>
      </trkpt>
      <trkpt lat="42.44196" lon="0.05083">
        <ele>815.6</ele>
        <time>2016-07-31T08:50:50Z</time>
      </trkpt>
      <trkpt lat="42.44199" lon="0.05084">
        <ele>815.7</ele>
        <time>2016-07-31T08:50:51Z</time>
      </trkpt>
      <trkpt lat="42.44202" lon="0.05086">
        <ele>815.7</ele>
        <time>2016-07-31T08:50:52Z</time>
      </trkpt>
      <trkpt lat="42.44205" lon="0.05087">
        <ele>815.7</ele>
        <time>2016-07-31T08:50:53Z</time>
      </trkpt>
      <trkpt lat="42.44207" lon="0.05089">
        <ele>815.7</ele>
        <time>2016-07-31T08:50:54Z</time>
      </trkpt>
      <trkpt lat="42.4421" lon="0.0509">
        <ele>815.6</ele>
        <time>2016-07-31T08:50:55Z</time>
      </trkpt>
      <trkpt lat="42.44213" lon="0.05092">
        <ele>815.4</ele>
        <time>2016-07-31T08:50:56Z</time>
      </trkpt>
      <trkpt lat="42.44217" lon="0.05094">
        <ele>815.3</ele>
        <time>2016-07-31T08:50:57Z</time>
      </trkpt>
      <trkpt lat="42.4422" lon="0.05096">
        <ele>815.3</ele>
        <time>2016-07-31T08:50:58Z</time>
      </trkpt>
      <trkpt lat="42.44223" lon="0.05098">
        <ele>815.3</ele>
        <time>2016-07-31T08:50:59Z</time>
      </trkpt>
      <trkpt lat="42.44226" lon="0.05099">
        <ele>815.2</ele>
        <time>2016-07-31T08:51:00Z</time>
      </trkpt>
      <trkpt lat="42.44229" lon="0.051">
        <ele>814.7</ele>
        <time>2016-07-31T08:51:01Z</time>
      </trkpt>
      <trkpt lat="42.44232" lon="0.05101">
        <ele>814</ele>
        <time>2016-07-31T08:51:02Z</time>
      </trkpt>
      <trkpt lat="42.44236" lon="0.05103">
        <ele>813.6</ele>
        <time>2016-07-31T08:51:03Z</time>
      </trkpt>
      <trkpt lat="42.44239" lon="0.05105">
        <ele>813.5</ele>
        <time>2016-07-31T08:51:04Z</time>
      </trkpt>
      <trkpt lat="42.44243" lon="0.05108">
        <ele>813.5</ele>
        <time>2016-07-31T08:51:05Z</time>
      </trkpt>
      <trkpt lat="42.44246" lon="0.0511">
        <ele>813.4</ele>
        <time>2016-07-31T08:51:06Z</time>
      </trkpt>
      <trkpt lat="42.44249" lon="0.05112">
        <ele>813.4</ele>
        <time>2016-07-31T08:51:07Z</time>
      </trkpt>
      <trkpt lat="42.44252" lon="0.05113">
        <ele>813.5</ele>
        <time>2016-07-31T08:51:08Z</time>
      </trkpt>
      <trkpt lat="42.44256" lon="0.05118">
        <ele>814.2</ele>
        <time>2016-07-31T08:51:10Z</time>
      </trkpt>
      <trkpt lat="42.44259" lon="0.05122">
        <ele>815.5</ele>
        <time>2016-07-31T08:51:12Z</time>
      </trkpt>
      <trkpt lat="42.44261" lon="0.05126">
        <ele>816.3</ele>
        <time>2016-07-31T08:51:13Z</time>
      </trkpt>
      <trkpt lat="42.44263" lon="0.05129">
        <ele>816.8</ele>
        <time>2016-07-31T08:51:14Z</time>
      </trkpt>
      <trkpt lat="42.44265" lon="0.05133">
        <ele>817.4</ele>
        <time>2016-07-31T08:51:15Z</time>
      </trkpt>
      <trkpt lat="42.44267" lon="0.05137">
        <ele>818.1</ele>
        <time>2016-07-31T08:51:16Z</time>
      </trkpt>
      <trkpt lat="42.44269" lon="0.05141">
        <ele>818.9</ele>
        <time>2016-07-31T08:51:17Z</time>
      </trkpt>
      <trkpt lat="42.44271" lon="0.05144">
        <ele>819.6</ele>
        <time>2016-07-31T08:51:18Z</time>
      </trkpt>
      <trkpt lat="42.44273" lon="0.05148">
        <ele>820.2</ele>
        <time>2016-07-31T08:51:19Z</time>
      </trkpt>
      <trkpt lat="42.44274" lon="0.05151">
        <ele>820.8</ele>
        <time>2016-07-31T08:51:20Z</time>
      </trkpt>
      <trkpt lat="42.44276" lon="0.05154">
        <ele>821.1</ele>
        <time>2016-07-31T08:51:21Z</time>
      </trkpt>
      <trkpt lat="42.4428" lon="0.0516">
        <ele>821.6</ele>
        <time>2016-07-31T08:51:23Z</time>
      </trkpt>
      <trkpt lat="42.44282" lon="0.05163">
        <ele>821.8</ele>
        <time>2016-07-31T08:51:24Z</time>
      </trkpt>
      <trkpt lat="42.44285" lon="0.05167">
        <ele>822</ele>
        <time>2016-07-31T08:51:25Z</time>
      </trkpt>
      <trkpt lat="42.44288" lon="0.05171">
        <ele>822.2</ele>
        <time>2016-07-31T08:51:26Z</time>
      </trkpt>
      <trkpt lat="42.44291" lon="0.05175">
        <ele>822.5</ele>
        <time>2016-07-31T08:51:27Z</time>
      </trkpt>
      <trkpt lat="42.44294" lon="0.05179">
        <ele>822.5</ele>
        <time>2016-07-31T08:51:28Z</time>
      </trkpt>
      <trkpt lat="42.44297" lon="0.05183">
        <ele>822</ele>
        <time>2016-07-31T08:51:29Z</time>
      </trkpt>
      <trkpt lat="42.443" lon="0.05186">
        <ele>821.1</ele>
        <time>2016-07-31T08:51:30Z</time>
      </trkpt>
      <trkpt lat="42.44304" lon="0.05189">
        <ele>820</ele>
        <time>2016-07-31T08:51:31Z</time>
      </trkpt>
      <trkpt lat="42.44307" lon="0.05191">
        <ele>818.9</ele>
        <time>2016-07-31T08:51:32Z</time>
      </trkpt>
      <trkpt lat="42.4431" lon="0.05194">
        <ele>818.2</ele>
        <time>2016-07-31T08:51:33Z</time>
      </trkpt>
      <trkpt lat="42.44313" lon="0.05198">
        <ele>817.7</ele>
        <time>2016-07-31T08:51:34Z</time>
      </trkpt>
      <trkpt lat="42.44316" lon="0.05202">
        <ele>817.6</ele>
        <time>2016-07-31T08:51:35Z</time>
      </trkpt>
      <trkpt lat="42.44319" lon="0.05207">
        <ele>817.4</ele>
        <time>2016-07-31T08:51:36Z</time>
      </trkpt>
      <trkpt lat="42.44322" lon="0.05212">
        <ele>817</ele>
        <time>2016-07-31T08:51:37Z</time>
      </trkpt>
      <trkpt lat="42.44325" lon="0.05216">
        <ele>816.7</ele>
        <time>2016-07-31T08:51:38Z</time>
      </trkpt>
      <trkpt lat="42.44328" lon="0.05221">
        <ele>816.6</ele>
        <time>2016-07-31T08:51:39Z</time>
      </trkpt>
      <trkpt lat="42.4433" lon="0.05224">
        <ele>816.6</ele>
        <time>2016-07-31T08:51:40Z</time>
      </trkpt>
      <trkpt lat="42.44332" lon="0.05228">
        <ele>816.6</ele>
        <time>2016-07-31T08:51:41Z</time>
      </trkpt>
      <trkpt lat="42.44335" lon="0.05231">
        <ele>816.5</ele>
        <time>2016-07-31T08:51:42Z</time>
      </trkpt>
      <trkpt lat="42.44339" lon="0.05236">
        <ele>815.5</ele>
        <time>2016-07-31T08:51:44Z</time>
      </trkpt>
      <trkpt lat="42.44342" lon="0.05238">
        <ele>814.7</ele>
        <time>2016-07-31T08:51:45Z</time>
      </trkpt>
      <trkpt lat="42.44346" lon="0.05241">
        <ele>813.7</ele>
        <time>2016-07-31T08:51:46Z</time>
      </trkpt>
      <trkpt lat="42.44348" lon="0.05243">
        <ele>813.2</ele>
        <time>2016-07-31T08:51:47Z</time>
      </trkpt>
      <trkpt lat="42.44351" lon="0.05248">
        <ele>813.1</ele>
        <time>2016-07-31T08:51:49Z</time>
      </trkpt>
      <trkpt lat="42.44353" lon="0.05252">
        <ele>813.5</ele>
        <time>2016-07-31T08:51:51Z</time>
      </trkpt>
      <trkpt lat="42.44357" lon="0.05254">
        <ele>812</ele>
        <time>2016-07-31T08:51:53Z</time>
      </trkpt>
      <trkpt lat="42.44361" lon="0.05257">
        <ele>810.6</ele>
        <time>2016-07-31T08:51:55Z</time>
      </trkpt>
      <trkpt lat="42.44364" lon="0.05262">
        <ele>810.8</ele>
        <time>2016-07-31T08:51:57Z</time>
      </trkpt>
      <trkpt lat="42.44366" lon="0.05265">
        <ele>810.9</ele>
        <time>2016-07-31T08:51:58Z</time>
      </trkpt>
      <trkpt lat="42.44368" lon="0.05269">
        <ele>810.8</ele>
        <time>2016-07-31T08:51:59Z</time>
      </trkpt>
      <trkpt lat="42.4437" lon="0.05271">
        <ele>810.4</ele>
        <time>2016-07-31T08:52:00Z</time>
      </trkpt>
      <trkpt lat="42.44373" lon="0.05273">
        <ele>809.6</ele>
        <time>2016-07-31T08:52:01Z</time>
      </trkpt>
      <trkpt lat="42.44377" lon="0.05276">
        <ele>808.2</ele>
        <time>2016-07-31T08:52:03Z</time>
      </trkpt>
      <trkpt lat="42.4438" lon="0.05279">
        <ele>807.1</ele>
        <time>2016-07-31T08:52:05Z</time>
      </trkpt>
      <trkpt lat="42.44384" lon="0.05282">
        <ele>806</ele>
        <time>2016-07-31T08:52:07Z</time>
      </trkpt>
      <trkpt lat="42.44386" lon="0.05285">
        <ele>805.5</ele>
        <time>2016-07-31T08:52:08Z</time>
      </trkpt>
      <trkpt lat="42.44388" lon="0.05288">
        <ele>805.5</ele>
        <time>2016-07-31T08:52:09Z</time>
      </trkpt>
      <trkpt lat="42.44389" lon="0.05291">
        <ele>805.6</ele>
        <time>2016-07-31T08:52:10Z</time>
      </trkpt>
      <trkpt lat="42.44391" lon="0.05295">
        <ele>805.3</ele>
        <time>2016-07-31T08:52:11Z</time>
      </trkpt>
      <trkpt lat="42.44393" lon="0.05298">
        <ele>805</ele>
        <time>2016-07-31T08:52:12Z</time>
      </trkpt>
      <trkpt lat="42.44394" lon="0.05303">
        <ele>805</ele>
        <time>2016-07-31T08:52:13Z</time>
      </trkpt>
      <trkpt lat="42.44395" lon="0.05307">
        <ele>805.1</ele>
        <time>2016-07-31T08:52:14Z</time>
      </trkpt>
      <trkpt lat="42.44396" lon="0.0531">
        <ele>805.6</ele>
        <time>2016-07-31T08:52:15Z</time>
      </trkpt>
      <trkpt lat="42.44397" lon="0.05316">
        <ele>806.2</ele>
        <time>2016-07-31T08:52:17Z</time>
      </trkpt>
      <trkpt lat="42.444" lon="0.05322">
        <ele>805.3</ele>
        <time>2016-07-31T08:52:19Z</time>
      </trkpt>
      <trkpt lat="42.44402" lon="0.05325">
        <ele>804.5</ele>
        <time>2016-07-31T08:52:20Z</time>
      </trkpt>
      <trkpt lat="42.44405" lon="0.05329">
        <ele>803.5</ele>
        <time>2016-07-31T08:52:21Z</time>
      </trkpt>
      <trkpt lat="42.44407" lon="0.05333">
        <ele>802.4</ele>
        <time>2016-07-31T08:52:22Z</time>
      </trkpt>
      <trkpt lat="42.44409" lon="0.05336">
        <ele>801.9</ele>
        <time>2016-07-31T08:52:23Z</time>
      </trkpt>
      <trkpt lat="42.44411" lon="0.05341">
        <ele>802</ele>
        <time>2016-07-31T08:52:25Z</time>
      </trkpt>
      <trkpt lat="42.44412" lon="0.05348">
        <ele>802.5</ele>
        <time>2016-07-31T08:52:27Z</time>
      </trkpt>
      <trkpt lat="42.44412" lon="0.05353">
        <ele>803.2</ele>
        <time>2016-07-31T08:52:28Z</time>
      </trkpt>
      <trkpt lat="42.44413" lon="0.05358">
        <ele>803.9</ele>
        <time>2016-07-31T08:52:29Z</time>
      </trkpt>
      <trkpt lat="42.44413" lon="0.05363">
        <ele>804.5</ele>
        <time>2016-07-31T08:52:30Z</time>
      </trkpt>
      <trkpt lat="42.44415" lon="0.05369">
        <ele>804.7</ele>
        <time>2016-07-31T08:52:31Z</time>
      </trkpt>
      <trkpt lat="42.44417" lon="0.05374">
        <ele>804.2</ele>
        <time>2016-07-31T08:52:32Z</time>
      </trkpt>
      <trkpt lat="42.44418" lon="0.05377">
        <ele>803.7</ele>
        <time>2016-07-31T08:52:33Z</time>
      </trkpt>
      <trkpt lat="42.44419" lon="0.05381">
        <ele>803.1</ele>
        <time>2016-07-31T08:52:35Z</time>
      </trkpt>
      <trkpt lat="42.44421" lon="0.05384">
        <ele>802.5</ele>
        <time>2016-07-31T08:52:37Z</time>
      </trkpt>
      <trkpt lat="42.44422" lon="0.05389">
        <ele>802.2</ele>
        <time>2016-07-31T08:52:40Z</time>
      </trkpt>
      <trkpt lat="42.44421" lon="0.05394">
        <ele>802.9</ele>
        <time>2016-07-31T08:52:42Z</time>
      </trkpt>
      <trkpt lat="42.44422" lon="0.05399">
        <ele>802.8</ele>
        <time>2016-07-31T08:52:44Z</time>
      </trkpt>
      <trkpt lat="42.44425" lon="0.05399">
        <ele>800.6</ele>
        <time>2016-07-31T08:52:46Z</time>
      </trkpt>
      <trkpt lat="42.44429" lon="0.05394">
        <ele>797.2</ele>
        <time>2016-07-31T08:52:48Z</time>
      </trkpt>
      <trkpt lat="42.44431" lon="0.05392">
        <ele>795.3</ele>
        <time>2016-07-31T08:52:50Z</time>
      </trkpt>
      <trkpt lat="42.44434" lon="0.05394">
        <ele>793.6</ele>
        <time>2016-07-31T08:52:52Z</time>
      </trkpt>
      <trkpt lat="42.44435" lon="0.05398">
        <ele>793.2</ele>
        <time>2016-07-31T08:52:53Z</time>
      </trkpt>
      <trkpt lat="42.44435" lon="0.05403">
        <ele>793.6</ele>
        <time>2016-07-31T08:52:54Z</time>
      </trkpt>
      <trkpt lat="42.44434" lon="0.05408">
        <ele>794.5</ele>
        <time>2016-07-31T08:52:55Z</time>
      </trkpt>
      <trkpt lat="42.44433" lon="0.05413">
        <ele>795.7</ele>
        <time>2016-07-31T08:52:56Z</time>
      </trkpt>
      <trkpt lat="42.44432" lon="0.05419">
        <ele>796.7</ele>
        <time>2016-07-31T08:52:57Z</time>
      </trkpt>
      <trkpt lat="42.44432" lon="0.05424">
        <ele>797.4</ele>
        <time>2016-07-31T08:52:58Z</time>
      </trkpt>
      <trkpt lat="42.44431" lon="0.05429">
        <ele>798.2</ele>
        <time>2016-07-31T08:52:59Z</time>
      </trkpt>
      <trkpt lat="42.44431" lon="0.05433">
        <ele>798.9</ele>
        <time>2016-07-31T08:53:00Z</time>
      </trkpt>
      <trkpt lat="42.44431" lon="0.05437">
        <ele>799.3</ele>
        <time>2016-07-31T08:53:01Z</time>
      </trkpt>
      <trkpt lat="42.44431" lon="0.05442">
        <ele>799.2</ele>
        <time>2016-07-31T08:53:02Z</time>
      </trkpt>
      <trkpt lat="42.44433" lon="0.05447">
        <ele>798.4</ele>
        <time>2016-07-31T08:53:04Z</time>
      </trkpt>
      <trkpt lat="42.44435" lon="0.05452">
        <ele>797.2</ele>
        <time>2016-07-31T08:53:06Z</time>
      </trkpt>
      <trkpt lat="42.44436" lon="0.05456">
        <ele>796.2</ele>
        <time>2016-07-31T08:53:07Z</time>
      </trkpt>
      <trkpt lat="42.44438" lon="0.05459">
        <ele>795.2</ele>
        <time>2016-07-31T08:53:08Z</time>
      </trkpt>
      <trkpt lat="42.44439" lon="0.05463">
        <ele>794.6</ele>
        <time>2016-07-31T08:53:09Z</time>
      </trkpt>
      <trkpt lat="42.44441" lon="0.05466">
        <ele>794</ele>
        <time>2016-07-31T08:53:10Z</time>
      </trkpt>
      <trkpt lat="42.44443" lon="0.05472">
        <ele>793.2</ele>
        <time>2016-07-31T08:53:12Z</time>
      </trkpt>
      <trkpt lat="42.44444" lon="0.05477">
        <ele>792.7</ele>
        <time>2016-07-31T08:53:14Z</time>
      </trkpt>
      <trkpt lat="42.44446" lon="0.05481">
        <ele>792.1</ele>
        <time>2016-07-31T08:53:15Z</time>
      </trkpt>
      <trkpt lat="42.44447" lon="0.05484">
        <ele>791.2</ele>
        <time>2016-07-31T08:53:16Z</time>
      </trkpt>
      <trkpt lat="42.44451" lon="0.05491">
        <ele>788.8</ele>
        <time>2016-07-31T08:53:18Z</time>
      </trkpt>
      <trkpt lat="42.44455" lon="0.05495">
        <ele>786.6</ele>
        <time>2016-07-31T08:53:19Z</time>
      </trkpt>
      <trkpt lat="42.44459" lon="0.055">
        <ele>784.3</ele>
        <time>2016-07-31T08:53:20Z</time>
      </trkpt>
      <trkpt lat="42.44462" lon="0.05505">
        <ele>782</ele>
        <time>2016-07-31T08:53:21Z</time>
      </trkpt>
      <trkpt lat="42.44465" lon="0.05508">
        <ele>780.5</ele>
        <time>2016-07-31T08:53:22Z</time>
      </trkpt>
      <trkpt lat="42.44467" lon="0.05511">
        <ele>779</ele>
        <time>2016-07-31T08:53:23Z</time>
      </trkpt>
      <trkpt lat="42.44469" lon="0.05514">
        <ele>777.4</ele>
        <time>2016-07-31T08:53:24Z</time>
      </trkpt>
      <trkpt lat="42.44472" lon="0.05518">
        <ele>775.9</ele>
        <time>2016-07-31T08:53:25Z</time>
      </trkpt>
      <trkpt lat="42.44474" lon="0.05523">
        <ele>775</ele>
        <time>2016-07-31T08:53:26Z</time>
      </trkpt>
      <trkpt lat="42.44476" lon="0.05527">
        <ele>774.1</ele>
        <time>2016-07-31T08:53:27Z</time>
      </trkpt>
      <trkpt lat="42.44479" lon="0.05533">
        <ele>772.1</ele>
        <time>2016-07-31T08:53:29Z</time>
      </trkpt>
      <trkpt lat="42.44482" lon="0.05537">
        <ele>770.3</ele>
        <time>2016-07-31T08:53:30Z</time>
      </trkpt>
      <trkpt lat="42.44485" lon="0.05542">
        <ele>768.9</ele>
        <time>2016-07-31T08:53:31Z</time>
      </trkpt>
      <trkpt lat="42.44487" lon="0.05547">
        <ele>767.7</ele>
        <time>2016-07-31T08:53:32Z</time>
      </trkpt>
      <trkpt lat="42.44489" lon="0.05553">
        <ele>766.8</ele>
        <time>2016-07-31T08:53:33Z</time>
      </trkpt>
      <trkpt lat="42.44492" lon="0.05558">
        <ele>765.9</ele>
        <time>2016-07-31T08:53:34Z</time>
      </trkpt>
      <trkpt lat="42.44494" lon="0.05563">
        <ele>764.9</ele>
        <time>2016-07-31T08:53:35Z</time>
      </trkpt>
      <trkpt lat="42.44496" lon="0.05568">
        <ele>763.9</ele>
        <time>2016-07-31T08:53:36Z</time>
      </trkpt>
      <trkpt lat="42.44499" lon="0.05572">
        <ele>762.7</ele>
        <time>2016-07-31T08:53:37Z</time>
      </trkpt>
      <trkpt lat="42.44502" lon="0.05577">
        <ele>761.1</ele>
        <time>2016-07-31T08:53:38Z</time>
      </trkpt>
      <trkpt lat="42.44505" lon="0.05581">
        <ele>759.4</ele>
        <time>2016-07-31T08:53:39Z</time>
      </trkpt>
      <trkpt lat="42.44509" lon="0.05585">
        <ele>757.6</ele>
        <time>2016-07-31T08:53:40Z</time>
      </trkpt>
      <trkpt lat="42.44512" lon="0.0559">
        <ele>756.2</ele>
        <time>2016-07-31T08:53:41Z</time>
      </trkpt>
      <trkpt lat="42.44515" lon="0.05595">
        <ele>754.8</ele>
        <time>2016-07-31T08:53:42Z</time>
      </trkpt>
      <trkpt lat="42.44518" lon="0.05599">
        <ele>753.5</ele>
        <time>2016-07-31T08:53:43Z</time>
      </trkpt>
      <trkpt lat="42.44521" lon="0.05604">
        <ele>752.2</ele>
        <time>2016-07-31T08:53:44Z</time>
      </trkpt>
      <trkpt lat="42.44523" lon="0.0561">
        <ele>751.8</ele>
        <time>2016-07-31T08:53:45Z</time>
      </trkpt>
      <trkpt lat="42.44525" lon="0.05616">
        <ele>752</ele>
        <time>2016-07-31T08:53:46Z</time>
      </trkpt>
      <trkpt lat="42.44526" lon="0.05623">
        <ele>752.6</ele>
        <time>2016-07-31T08:53:47Z</time>
      </trkpt>
      <trkpt lat="42.44527" lon="0.05628">
        <ele>752.5</ele>
        <time>2016-07-31T08:53:48Z</time>
      </trkpt>
      <trkpt lat="42.44528" lon="0.05632">
        <ele>751.9</ele>
        <time>2016-07-31T08:53:49Z</time>
      </trkpt>
      <trkpt lat="42.44529" lon="0.05636">
        <ele>751.4</ele>
        <time>2016-07-31T08:53:50Z</time>
      </trkpt>
      <trkpt lat="42.44531" lon="0.0564">
        <ele>750.6</ele>
        <time>2016-07-31T08:53:51Z</time>
      </trkpt>
      <trkpt lat="42.44532" lon="0.05644">
        <ele>749.6</ele>
        <time>2016-07-31T08:53:52Z</time>
      </trkpt>
      <trkpt lat="42.44534" lon="0.05649">
        <ele>749.1</ele>
        <time>2016-07-31T08:53:53Z</time>
      </trkpt>
      <trkpt lat="42.44534" lon="0.05653">
        <ele>749.2</ele>
        <time>2016-07-31T08:53:54Z</time>
      </trkpt>
      <trkpt lat="42.44533" lon="0.05658">
        <ele>749.8</ele>
        <time>2016-07-31T08:53:55Z</time>
      </trkpt>
      <trkpt lat="42.44533" lon="0.05662">
        <ele>750.6</ele>
        <time>2016-07-31T08:53:56Z</time>
      </trkpt>
      <trkpt lat="42.44532" lon="0.05667">
        <ele>751</ele>
        <time>2016-07-31T08:53:57Z</time>
      </trkpt>
      <trkpt lat="42.44532" lon="0.05672">
        <ele>751.5</ele>
        <time>2016-07-31T08:53:58Z</time>
      </trkpt>
      <trkpt lat="42.44532" lon="0.05676">
        <ele>751.8</ele>
        <time>2016-07-31T08:53:59Z</time>
      </trkpt>
      <trkpt lat="42.44532" lon="0.0568">
        <ele>752.1</ele>
        <time>2016-07-31T08:54:00Z</time>
      </trkpt>
      <trkpt lat="42.44531" lon="0.05686">
        <ele>753.2</ele>
        <time>2016-07-31T08:54:02Z</time>
      </trkpt>
      <trkpt lat="42.4453" lon="0.05691">
        <ele>754.1</ele>
        <time>2016-07-31T08:54:04Z</time>
      </trkpt>
      <trkpt lat="42.4453" lon="0.05697">
        <ele>754.1</ele>
        <time>2016-07-31T08:54:06Z</time>
      </trkpt>
      <trkpt lat="42.44531" lon="0.057">
        <ele>753.9</ele>
        <time>2016-07-31T08:54:07Z</time>
      </trkpt>
      <trkpt lat="42.44532" lon="0.05706">
        <ele>753.3</ele>
        <time>2016-07-31T08:54:09Z</time>
      </trkpt>
      <trkpt lat="42.44534" lon="0.05713">
        <ele>751.9</ele>
        <time>2016-07-31T08:54:11Z</time>
      </trkpt>
      <trkpt lat="42.44534" lon="0.05718">
        <ele>751.1</ele>
        <time>2016-07-31T08:54:12Z</time>
      </trkpt>
      <trkpt lat="42.44533" lon="0.05723">
        <ele>750.5</ele>
        <time>2016-07-31T08:54:13Z</time>
      </trkpt>
      <trkpt lat="42.44532" lon="0.0573">
        <ele>750</ele>
        <time>2016-07-31T08:54:14Z</time>
      </trkpt>
      <trkpt lat="42.4453" lon="0.05738">
        <ele>749.9</ele>
        <time>2016-07-31T08:54:15Z</time>
      </trkpt>
      <trkpt lat="42.44529" lon="0.05745">
        <ele>749.8</ele>
        <time>2016-07-31T08:54:16Z</time>
      </trkpt>
      <trkpt lat="42.44527" lon="0.05753">
        <ele>749.5</ele>
        <time>2016-07-31T08:54:17Z</time>
      </trkpt>
      <trkpt lat="42.44525" lon="0.05761">
        <ele>749.3</ele>
        <time>2016-07-31T08:54:18Z</time>
      </trkpt>
      <trkpt lat="42.44524" lon="0.0577">
        <ele>749</ele>
        <time>2016-07-31T08:54:19Z</time>
      </trkpt>
      <trkpt lat="42.44522" lon="0.05777">
        <ele>748.9</ele>
        <time>2016-07-31T08:54:20Z</time>
      </trkpt>
      <trkpt lat="42.4452" lon="0.05785">
        <ele>748.8</ele>
        <time>2016-07-31T08:54:21Z</time>
      </trkpt>
      <trkpt lat="42.44518" lon="0.05792">
        <ele>748.8</ele>
        <time>2016-07-31T08:54:22Z</time>
      </trkpt>
      <trkpt lat="42.44517" lon="0.05798">
        <ele>748.1</ele>
        <time>2016-07-31T08:54:23Z</time>
      </trkpt>
      <trkpt lat="42.44514" lon="0.05805">
        <ele>747.8</ele>
        <time>2016-07-31T08:54:24Z</time>
      </trkpt>
      <trkpt lat="42.44512" lon="0.0581">
        <ele>747.9</ele>
        <time>2016-07-31T08:54:25Z</time>
      </trkpt>
      <trkpt lat="42.4451" lon="0.05814">
        <ele>748.3</ele>
        <time>2016-07-31T08:54:26Z</time>
      </trkpt>
      <trkpt lat="42.44507" lon="0.05818">
        <ele>749</ele>
        <time>2016-07-31T08:54:27Z</time>
      </trkpt>
      <trkpt lat="42.44505" lon="0.0582">
        <ele>749.9</ele>
        <time>2016-07-31T08:54:28Z</time>
      </trkpt>
      <trkpt lat="42.44501" lon="0.05827">
        <ele>750.9</ele>
        <time>2016-07-31T08:54:30Z</time>
      </trkpt>
      <trkpt lat="42.445" lon="0.05831">
        <ele>750.7</ele>
        <time>2016-07-31T08:54:31Z</time>
      </trkpt>
      <trkpt lat="42.44499" lon="0.05836">
        <ele>750.4</ele>
        <time>2016-07-31T08:54:32Z</time>
      </trkpt>
      <trkpt lat="42.44498" lon="0.0584">
        <ele>750</ele>
        <time>2016-07-31T08:54:33Z</time>
      </trkpt>
      <trkpt lat="42.44497" lon="0.05845">
        <ele>749.5</ele>
        <time>2016-07-31T08:54:34Z</time>
      </trkpt>
      <trkpt lat="42.44495" lon="0.0585">
        <ele>749.1</ele>
        <time>2016-07-31T08:54:35Z</time>
      </trkpt>
      <trkpt lat="42.44495" lon="0.05854">
        <ele>748.8</ele>
        <time>2016-07-31T08:54:36Z</time>
      </trkpt>
      <trkpt lat="42.44493" lon="0.05859">
        <ele>748.6</ele>
        <time>2016-07-31T08:54:38Z</time>
      </trkpt>
      <trkpt lat="42.44492" lon="0.05865">
        <ele>748</ele>
        <time>2016-07-31T08:54:40Z</time>
      </trkpt>
      <trkpt lat="42.44492" lon="0.0587">
        <ele>746.6</ele>
        <time>2016-07-31T08:54:42Z</time>
      </trkpt>
      <trkpt lat="42.4449" lon="0.05874">
        <ele>747.3</ele>
        <time>2016-07-31T08:55:18Z</time>
      </trkpt>
      <trkpt lat="42.44489" lon="0.05878">
        <ele>747.1</ele>
        <time>2016-07-31T08:55:19Z</time>
      </trkpt>
      <trkpt lat="42.44487" lon="0.05881">
        <ele>746.9</ele>
        <time>2016-07-31T08:55:20Z</time>
      </trkpt>
      <trkpt lat="42.44485" lon="0.05884">
        <ele>747.2</ele>
        <time>2016-07-31T08:55:22Z</time>
      </trkpt>
      <trkpt lat="42.44483" lon="0.05886">
        <ele>748.2</ele>
        <time>2016-07-31T08:55:24Z</time>
      </trkpt>
      <trkpt lat="42.44487" lon="0.05887">
        <ele>745</ele>
        <time>2016-07-31T08:55:31Z</time>
      </trkpt>
      <trkpt lat="42.4449" lon="0.05886">
        <ele>742.6</ele>
        <time>2016-07-31T08:55:34Z</time>
      </trkpt>
      <trkpt lat="42.44491" lon="0.0589">
        <ele>740.6</ele>
        <time>2016-07-31T08:55:37Z</time>
      </trkpt>
      <trkpt lat="42.44488" lon="0.05896">
        <ele>740.1</ele>
        <time>2016-07-31T08:55:39Z</time>
      </trkpt>
      <trkpt lat="42.44487" lon="0.05898">
        <ele>740.3</ele>
        <time>2016-07-31T08:55:40Z</time>
      </trkpt>
      <trkpt lat="42.44483" lon="0.05903">
        <ele>741.2</ele>
        <time>2016-07-31T08:55:42Z</time>
      </trkpt>
      <trkpt lat="42.44481" lon="0.05905">
        <ele>742.1</ele>
        <time>2016-07-31T08:55:44Z</time>
      </trkpt>
      <trkpt lat="42.44479" lon="0.05909">
        <ele>741.2</ele>
        <time>2016-07-31T08:55:46Z</time>
      </trkpt>
      <trkpt lat="42.44479" lon="0.05915">
        <ele>739.3</ele>
        <time>2016-07-31T08:55:48Z</time>
      </trkpt>
      <trkpt lat="42.44479" lon="0.0592">
        <ele>736.9</ele>
        <time>2016-07-31T08:55:53Z</time>
      </trkpt>
      <trkpt lat="42.44479" lon="0.05925">
        <ele>735.3</ele>
        <time>2016-07-31T08:55:56Z</time>
      </trkpt>
      <trkpt lat="42.44478" lon="0.05929">
        <ele>734.1</ele>
        <time>2016-07-31T08:56:13Z</time>
      </trkpt>
      <trkpt lat="42.44477" lon="0.05933">
        <ele>733.5</ele>
        <time>2016-07-31T08:56:21Z</time>
      </trkpt>
      <trkpt lat="42.44478" lon="0.05936">
        <ele>731.7</ele>
        <time>2016-07-31T08:56:28Z</time>
      </trkpt>
      <trkpt lat="42.44478" lon="0.05941">
        <ele>729.3</ele>
        <time>2016-07-31T08:56:32Z</time>
      </trkpt>
      <trkpt lat="42.44479" lon="0.05945">
        <ele>727</ele>
        <time>2016-07-31T08:56:43Z</time>
      </trkpt>
      <trkpt lat="42.44481" lon="0.05947">
        <ele>724.3</ele>
        <time>2016-07-31T08:56:52Z</time>
      </trkpt>
      <trkpt lat="42.44481" lon="0.05951">
        <ele>722.8</ele>
        <time>2016-07-31T08:56:58Z</time>
      </trkpt>
      <trkpt lat="42.4448" lon="0.05955">
        <ele>722.3</ele>
        <time>2016-07-31T08:57:06Z</time>
      </trkpt>
      <trkpt lat="42.44479" lon="0.05958">
        <ele>721.8</ele>
        <time>2016-07-31T08:57:12Z</time>
      </trkpt>
      <trkpt lat="42.44477" lon="0.05961">
        <ele>722.1</ele>
        <time>2016-07-31T08:57:16Z</time>
      </trkpt>
      <trkpt lat="42.44476" lon="0.05968">
        <ele>721.6</ele>
        <time>2016-07-31T08:57:18Z</time>
      </trkpt>
      <trkpt lat="42.44475" lon="0.05972">
        <ele>721</ele>
        <time>2016-07-31T08:57:19Z</time>
      </trkpt>
      <trkpt lat="42.44474" lon="0.05977">
        <ele>720.4</ele>
        <time>2016-07-31T08:57:20Z</time>
      </trkpt>
      <trkpt lat="42.44473" lon="0.05982">
        <ele>720</ele>
        <time>2016-07-31T08:57:21Z</time>
      </trkpt>
      <trkpt lat="42.44472" lon="0.05986">
        <ele>719.6</ele>
        <time>2016-07-31T08:57:22Z</time>
      </trkpt>
      <trkpt lat="42.44471" lon="0.05991">
        <ele>719.4</ele>
        <time>2016-07-31T08:57:23Z</time>
      </trkpt>
      <trkpt lat="42.44469" lon="0.05995">
        <ele>719.4</ele>
        <time>2016-07-31T08:57:24Z</time>
      </trkpt>
      <trkpt lat="42.44468" lon="0.06">
        <ele>719.4</ele>
        <time>2016-07-31T08:57:26Z</time>
      </trkpt>
      <trkpt lat="42.44468" lon="0.06004">
        <ele>718.3</ele>
        <time>2016-07-31T08:57:31Z</time>
      </trkpt>
      <trkpt lat="42.4447" lon="0.06002">
        <ele>716.6</ele>
        <time>2016-07-31T08:57:39Z</time>
      </trkpt>
      <trkpt lat="42.44476" lon="0.05999">
        <ele>713.1</ele>
        <time>2016-07-31T08:57:41Z</time>
      </trkpt>
      <trkpt lat="42.4448" lon="0.05998">
        <ele>710.7</ele>
        <time>2016-07-31T08:57:42Z</time>
      </trkpt>
      <trkpt lat="42.44483" lon="0.05996">
        <ele>708.8</ele>
        <time>2016-07-31T08:57:43Z</time>
      </trkpt>
      <trkpt lat="42.44485" lon="0.05995">
        <ele>707.2</ele>
        <time>2016-07-31T08:57:44Z</time>
      </trkpt>
      <trkpt lat="42.4449" lon="0.05992">
        <ele>704.6</ele>
        <time>2016-07-31T08:57:46Z</time>
      </trkpt>
      <trkpt lat="42.44492" lon="0.05989">
        <ele>703.6</ele>
        <time>2016-07-31T08:57:49Z</time>
      </trkpt>
      <trkpt lat="42.44495" lon="0.0599">
        <ele>701</ele>
        <time>2016-07-31T08:57:54Z</time>
      </trkpt>
      <trkpt lat="42.44496" lon="0.05994">
        <ele>699.1</ele>
        <time>2016-07-31T08:58:02Z</time>
      </trkpt>
      <trkpt lat="42.44499" lon="0.05993">
        <ele>697.4</ele>
        <time>2016-07-31T08:58:07Z</time>
      </trkpt>
      <trkpt lat="42.44499" lon="0.05998">
        <ele>695.6</ele>
        <time>2016-07-31T08:58:15Z</time>
      </trkpt>
      <trkpt lat="42.44498" lon="0.06003">
        <ele>695.3</ele>
        <time>2016-07-31T08:58:16Z</time>
      </trkpt>
      <trkpt lat="42.44497" lon="0.06008">
        <ele>694.6</ele>
        <time>2016-07-31T08:58:17Z</time>
      </trkpt>
      <trkpt lat="42.44496" lon="0.06013">
        <ele>693.9</ele>
        <time>2016-07-31T08:58:18Z</time>
      </trkpt>
      <trkpt lat="42.44495" lon="0.06019">
        <ele>692.8</ele>
        <time>2016-07-31T08:58:19Z</time>
      </trkpt>
      <trkpt lat="42.44494" lon="0.06025">
        <ele>691.9</ele>
        <time>2016-07-31T08:58:20Z</time>
      </trkpt>
      <trkpt lat="42.44493" lon="0.06031">
        <ele>691.5</ele>
        <time>2016-07-31T08:58:21Z</time>
      </trkpt>
      <trkpt lat="42.44492" lon="0.06035">
        <ele>691.3</ele>
        <time>2016-07-31T08:58:22Z</time>
      </trkpt>
      <trkpt lat="42.4449" lon="0.06038">
        <ele>691.3</ele>
        <time>2016-07-31T08:58:23Z</time>
      </trkpt>
      <trkpt lat="42.44489" lon="0.06042">
        <ele>691.3</ele>
        <time>2016-07-31T08:58:24Z</time>
      </trkpt>
      <trkpt lat="42.44488" lon="0.06046">
        <ele>691</ele>
        <time>2016-07-31T08:58:25Z</time>
      </trkpt>
      <trkpt lat="42.44487" lon="0.06049">
        <ele>690.9</ele>
        <time>2016-07-31T08:58:26Z</time>
      </trkpt>
      <trkpt lat="42.44486" lon="0.06053">
        <ele>690.7</ele>
        <time>2016-07-31T08:58:27Z</time>
      </trkpt>
      <trkpt lat="42.44485" lon="0.06057">
        <ele>690.3</ele>
        <time>2016-07-31T08:58:28Z</time>
      </trkpt>
      <trkpt lat="42.44485" lon="0.06061">
        <ele>689.7</ele>
        <time>2016-07-31T08:58:29Z</time>
      </trkpt>
      <trkpt lat="42.44484" lon="0.06066">
        <ele>688.9</ele>
        <time>2016-07-31T08:58:30Z</time>
      </trkpt>
      <trkpt lat="42.44484" lon="0.0607">
        <ele>687.3</ele>
        <time>2016-07-31T08:58:31Z</time>
      </trkpt>
      <trkpt lat="42.44485" lon="0.06076">
        <ele>685.2</ele>
        <time>2016-07-31T08:58:32Z</time>
      </trkpt>
      <trkpt lat="42.44486" lon="0.06081">
        <ele>683</ele>
        <time>2016-07-31T08:58:33Z</time>
      </trkpt>
      <trkpt lat="42.44487" lon="0.06086">
        <ele>681.1</ele>
        <time>2016-07-31T08:58:34Z</time>
      </trkpt>
      <trkpt lat="42.44488" lon="0.0609">
        <ele>679.3</ele>
        <time>2016-07-31T08:58:35Z</time>
      </trkpt>
      <trkpt lat="42.44489" lon="0.06094">
        <ele>677.5</ele>
        <time>2016-07-31T08:58:36Z</time>
      </trkpt>
      <trkpt lat="42.44491" lon="0.06098">
        <ele>675.2</ele>
        <time>2016-07-31T08:58:37Z</time>
      </trkpt>
      <trkpt lat="42.44492" lon="0.06101">
        <ele>672.9</ele>
        <time>2016-07-31T08:58:38Z</time>
      </trkpt>
      <trkpt lat="42.44494" lon="0.06105">
        <ele>670.7</ele>
        <time>2016-07-31T08:58:39Z</time>
      </trkpt>
      <trkpt lat="42.44495" lon="0.06109">
        <ele>669</ele>
        <time>2016-07-31T08:58:40Z</time>
      </trkpt>
      <trkpt lat="42.44496" lon="0.06114">
        <ele>666.5</ele>
        <time>2016-07-31T08:58:42Z</time>
      </trkpt>
      <trkpt lat="42.44502" lon="0.06115">
        <ele>662.3</ele>
        <time>2016-07-31T08:58:44Z</time>
      </trkpt>
      <trkpt lat="42.44505" lon="0.06115">
        <ele>660.3</ele>
        <time>2016-07-31T08:58:45Z</time>
      </trkpt>
      <trkpt lat="42.44508" lon="0.06115">
        <ele>657.6</ele>
        <time>2016-07-31T08:58:47Z</time>
      </trkpt>
      <trkpt lat="42.44507" lon="0.06119">
        <ele>657</ele>
        <time>2016-07-31T08:58:53Z</time>
      </trkpt>
      <trkpt lat="42.44507" lon="0.06123">
        <ele>656.5</ele>
        <time>2016-07-31T08:58:56Z</time>
      </trkpt>
      <trkpt lat="42.4451" lon="0.06123">
        <ele>654.2</ele>
        <time>2016-07-31T08:59:04Z</time>
      </trkpt>
      <trkpt lat="42.44511" lon="0.06127">
        <ele>652.5</ele>
        <time>2016-07-31T08:59:07Z</time>
      </trkpt>
      <trkpt lat="42.44511" lon="0.06132">
        <ele>651.6</ele>
        <time>2016-07-31T08:59:10Z</time>
      </trkpt>
      <trkpt lat="42.44508" lon="0.06133">
        <ele>653</ele>
        <time>2016-07-31T08:59:14Z</time>
      </trkpt>
      <trkpt lat="42.44506" lon="0.06134">
        <ele>654.8</ele>
        <time>2016-07-31T08:59:17Z</time>
      </trkpt>
      <trkpt lat="42.44503" lon="0.06137">
        <ele>655.7</ele>
        <time>2016-07-31T08:59:19Z</time>
      </trkpt>
      <trkpt lat="42.44502" lon="0.06143">
        <ele>655.2</ele>
        <time>2016-07-31T08:59:21Z</time>
      </trkpt>
      <trkpt lat="42.44502" lon="0.06147">
        <ele>654.6</ele>
        <time>2016-07-31T08:59:22Z</time>
      </trkpt>
      <trkpt lat="42.44502" lon="0.06154">
        <ele>653.1</ele>
        <time>2016-07-31T08:59:24Z</time>
      </trkpt>
      <trkpt lat="42.44502" lon="0.06158">
        <ele>652</ele>
        <time>2016-07-31T08:59:25Z</time>
      </trkpt>
      <trkpt lat="42.44502" lon="0.06163">
        <ele>650.9</ele>
        <time>2016-07-31T08:59:26Z</time>
      </trkpt>
      <trkpt lat="42.44502" lon="0.06167">
        <ele>649.9</ele>
        <time>2016-07-31T08:59:27Z</time>
      </trkpt>
      <trkpt lat="42.44502" lon="0.06171">
        <ele>649</ele>
        <time>2016-07-31T08:59:28Z</time>
      </trkpt>
      <trkpt lat="42.44502" lon="0.06175">
        <ele>647.8</ele>
        <time>2016-07-31T08:59:29Z</time>
      </trkpt>
      <trkpt lat="42.44502" lon="0.0618">
        <ele>646.8</ele>
        <time>2016-07-31T08:59:30Z</time>
      </trkpt>
      <trkpt lat="42.44502" lon="0.06184">
        <ele>645.7</ele>
        <time>2016-07-31T08:59:31Z</time>
      </trkpt>
      <trkpt lat="42.44502" lon="0.06189">
        <ele>644.9</ele>
        <time>2016-07-31T08:59:32Z</time>
      </trkpt>
      <trkpt lat="42.44501" lon="0.06195">
        <ele>644.1</ele>
        <time>2016-07-31T08:59:34Z</time>
      </trkpt>
      <trkpt lat="42.44499" lon="0.06202">
        <ele>643.6</ele>
        <time>2016-07-31T08:59:36Z</time>
      </trkpt>
      <trkpt lat="42.44497" lon="0.0621">
        <ele>643.1</ele>
        <time>2016-07-31T08:59:38Z</time>
      </trkpt>
      <trkpt lat="42.44495" lon="0.06215">
        <ele>642.6</ele>
        <time>2016-07-31T08:59:39Z</time>
      </trkpt>
      <trkpt lat="42.44494" lon="0.0622">
        <ele>641.8</ele>
        <time>2016-07-31T08:59:40Z</time>
      </trkpt>
      <trkpt lat="42.44493" lon="0.06226">
        <ele>640.9</ele>
        <time>2016-07-31T08:59:41Z</time>
      </trkpt>
      <trkpt lat="42.44492" lon="0.06231">
        <ele>639.9</ele>
        <time>2016-07-31T08:59:42Z</time>
      </trkpt>
      <trkpt lat="42.44492" lon="0.06235">
        <ele>639</ele>
        <time>2016-07-31T08:59:43Z</time>
      </trkpt>
      <trkpt lat="42.44491" lon="0.06239">
        <ele>638.2</ele>
        <time>2016-07-31T08:59:44Z</time>
      </trkpt>
      <trkpt lat="42.4449" lon="0.06244">
        <ele>637.1</ele>
        <time>2016-07-31T08:59:45Z</time>
      </trkpt>
      <trkpt lat="42.4449" lon="0.06249">
        <ele>635.9</ele>
        <time>2016-07-31T08:59:46Z</time>
      </trkpt>
      <trkpt lat="42.4449" lon="0.06255">
        <ele>634.4</ele>
        <time>2016-07-31T08:59:47Z</time>
      </trkpt>
      <trkpt lat="42.4449" lon="0.06258">
        <ele>633.2</ele>
        <time>2016-07-31T08:59:48Z</time>
      </trkpt>
      <trkpt lat="42.44492" lon="0.06262">
        <ele>631.4</ele>
        <time>2016-07-31T08:59:49Z</time>
      </trkpt>
      <trkpt lat="42.44494" lon="0.06264">
        <ele>629.5</ele>
        <time>2016-07-31T08:59:50Z</time>
      </trkpt>
      <trkpt lat="42.44497" lon="0.06269">
        <ele>627</ele>
        <time>2016-07-31T08:59:52Z</time>
      </trkpt>
      <trkpt lat="42.44495" lon="0.06272">
        <ele>626.8</ele>
        <time>2016-07-31T08:59:57Z</time>
      </trkpt>
      <trkpt lat="42.44494" lon="0.06277">
        <ele>626.3</ele>
        <time>2016-07-31T08:59:59Z</time>
      </trkpt>
      <trkpt lat="42.44492" lon="0.06283">
        <ele>625.3</ele>
        <time>2016-07-31T09:00:01Z</time>
      </trkpt>
      <trkpt lat="42.44491" lon="0.06286">
        <ele>624.8</ele>
        <time>2016-07-31T09:00:02Z</time>
      </trkpt>
      <trkpt lat="42.4449" lon="0.0629">
        <ele>624.1</ele>
        <time>2016-07-31T09:00:03Z</time>
      </trkpt>
      <trkpt lat="42.44488" lon="0.06295">
        <ele>623.8</ele>
        <time>2016-07-31T09:00:04Z</time>
      </trkpt>
      <trkpt lat="42.44486" lon="0.06301">
        <ele>623.6</ele>
        <time>2016-07-31T09:00:05Z</time>
      </trkpt>
      <trkpt lat="42.44484" lon="0.06306">
        <ele>623.4</ele>
        <time>2016-07-31T09:00:06Z</time>
      </trkpt>
      <trkpt lat="42.44482" lon="0.06311">
        <ele>623.1</ele>
        <time>2016-07-31T09:00:07Z</time>
      </trkpt>
      <trkpt lat="42.4448" lon="0.06315">
        <ele>622.8</ele>
        <time>2016-07-31T09:00:08Z</time>
      </trkpt>
      <trkpt lat="42.44478" lon="0.0632">
        <ele>622.6</ele>
        <time>2016-07-31T09:00:09Z</time>
      </trkpt>
      <trkpt lat="42.44476" lon="0.06325">
        <ele>622</ele>
        <time>2016-07-31T09:00:10Z</time>
      </trkpt>
      <trkpt lat="42.44474" lon="0.0633">
        <ele>621.4</ele>
        <time>2016-07-31T09:00:11Z</time>
      </trkpt>
      <trkpt lat="42.44472" lon="0.06335">
        <ele>620.7</ele>
        <time>2016-07-31T09:00:12Z</time>
      </trkpt>
      <trkpt lat="42.44471" lon="0.06341">
        <ele>619.8</ele>
        <time>2016-07-31T09:00:13Z</time>
      </trkpt>
      <trkpt lat="42.44469" lon="0.06347">
        <ele>618.8</ele>
        <time>2016-07-31T09:00:14Z</time>
      </trkpt>
      <trkpt lat="42.44467" lon="0.06354">
        <ele>617.7</ele>
        <time>2016-07-31T09:00:15Z</time>
      </trkpt>
      <trkpt lat="42.44465" lon="0.0636">
        <ele>616.5</ele>
        <time>2016-07-31T09:00:16Z</time>
      </trkpt>
      <trkpt lat="42.44463" lon="0.06366">
        <ele>615.2</ele>
        <time>2016-07-31T09:00:17Z</time>
      </trkpt>
      <trkpt lat="42.44462" lon="0.06373">
        <ele>614</ele>
        <time>2016-07-31T09:00:18Z</time>
      </trkpt>
      <trkpt lat="42.4446" lon="0.06379">
        <ele>613</ele>
        <time>2016-07-31T09:00:19Z</time>
      </trkpt>
      <trkpt lat="42.44459" lon="0.06384">
        <ele>612.3</ele>
        <time>2016-07-31T09:00:20Z</time>
      </trkpt>
      <trkpt lat="42.44457" lon="0.0639">
        <ele>611.7</ele>
        <time>2016-07-31T09:00:21Z</time>
      </trkpt>
      <trkpt lat="42.44456" lon="0.06396">
        <ele>611.1</ele>
        <time>2016-07-31T09:00:22Z</time>
      </trkpt>
      <trkpt lat="42.44454" lon="0.06402">
        <ele>610.5</ele>
        <time>2016-07-31T09:00:23Z</time>
      </trkpt>
      <trkpt lat="42.44452" lon="0.06408">
        <ele>609.9</ele>
        <time>2016-07-31T09:00:24Z</time>
      </trkpt>
      <trkpt lat="42.44451" lon="0.06413">
        <ele>609.4</ele>
        <time>2016-07-31T09:00:25Z</time>
      </trkpt>
      <trkpt lat="42.44449" lon="0.06418">
        <ele>608.9</ele>
        <time>2016-07-31T09:00:26Z</time>
      </trkpt>
      <trkpt lat="42.44447" lon="0.06424">
        <ele>608.3</ele>
        <time>2016-07-31T09:00:27Z</time>
      </trkpt>
      <trkpt lat="42.44445" lon="0.06429">
        <ele>607.7</ele>
        <time>2016-07-31T09:00:28Z</time>
      </trkpt>
      <trkpt lat="42.44442" lon="0.06435">
        <ele>607</ele>
        <time>2016-07-31T09:00:29Z</time>
      </trkpt>
      <trkpt lat="42.4444" lon="0.06441">
        <ele>606.3</ele>
        <time>2016-07-31T09:00:30Z</time>
      </trkpt>
      <trkpt lat="42.44438" lon="0.06446">
        <ele>605.6</ele>
        <time>2016-07-31T09:00:31Z</time>
      </trkpt>
      <trkpt lat="42.44436" lon="0.06452">
        <ele>604.8</ele>
        <time>2016-07-31T09:00:32Z</time>
      </trkpt>
      <trkpt lat="42.44434" lon="0.06458">
        <ele>603.9</ele>
        <time>2016-07-31T09:00:33Z</time>
      </trkpt>
      <trkpt lat="42.44431" lon="0.06463">
        <ele>603.7</ele>
        <time>2016-07-31T09:00:34Z</time>
      </trkpt>
      <trkpt lat="42.44429" lon="0.06468">
        <ele>603.7</ele>
        <time>2016-07-31T09:00:35Z</time>
      </trkpt>
      <trkpt lat="42.44426" lon="0.06474">
        <ele>603.6</ele>
        <time>2016-07-31T09:00:36Z</time>
      </trkpt>
      <trkpt lat="42.44423" lon="0.06479">
        <ele>603.5</ele>
        <time>2016-07-31T09:00:37Z</time>
      </trkpt>
      <trkpt lat="42.4442" lon="0.06485">
        <ele>603.4</ele>
        <time>2016-07-31T09:00:38Z</time>
      </trkpt>
      <trkpt lat="42.44418" lon="0.0649">
        <ele>603.3</ele>
        <time>2016-07-31T09:00:39Z</time>
      </trkpt>
      <trkpt lat="42.44415" lon="0.06495">
        <ele>603.1</ele>
        <time>2016-07-31T09:00:40Z</time>
      </trkpt>
      <trkpt lat="42.44412" lon="0.06501">
        <ele>602.9</ele>
        <time>2016-07-31T09:00:41Z</time>
      </trkpt>
      <trkpt lat="42.44409" lon="0.06507">
        <ele>602.6</ele>
        <time>2016-07-31T09:00:42Z</time>
      </trkpt>
      <trkpt lat="42.44406" lon="0.06512">
        <ele>602.4</ele>
        <time>2016-07-31T09:00:43Z</time>
      </trkpt>
      <trkpt lat="42.44403" lon="0.06517">
        <ele>602.1</ele>
        <time>2016-07-31T09:00:44Z</time>
      </trkpt>
      <trkpt lat="42.444" lon="0.06522">
        <ele>601.9</ele>
        <time>2016-07-31T09:00:45Z</time>
      </trkpt>
      <trkpt lat="42.44397" lon="0.06527">
        <ele>601.6</ele>
        <time>2016-07-31T09:00:46Z</time>
      </trkpt>
      <trkpt lat="42.44395" lon="0.06531">
        <ele>601.3</ele>
        <time>2016-07-31T09:00:47Z</time>
      </trkpt>
      <trkpt lat="42.44392" lon="0.06535">
        <ele>601</ele>
        <time>2016-07-31T09:00:48Z</time>
      </trkpt>
      <trkpt lat="42.4439" lon="0.06539">
        <ele>600.8</ele>
        <time>2016-07-31T09:00:49Z</time>
      </trkpt>
      <trkpt lat="42.44387" lon="0.06543">
        <ele>600.6</ele>
        <time>2016-07-31T09:00:51Z</time>
      </trkpt>
      <trkpt lat="42.44381" lon="0.06545">
        <ele>601.1</ele>
        <time>2016-07-31T09:00:53Z</time>
      </trkpt>
      <trkpt lat="42.44377" lon="0.06544">
        <ele>601.6</ele>
        <time>2016-07-31T09:00:54Z</time>
      </trkpt>
      <trkpt lat="42.44374" lon="0.06544">
        <ele>602</ele>
        <time>2016-07-31T09:00:55Z</time>
      </trkpt>
      <trkpt lat="42.4437" lon="0.06544">
        <ele>602.2</ele>
        <time>2016-07-31T09:00:56Z</time>
      </trkpt>
      <trkpt lat="42.44366" lon="0.06545">
        <ele>602.4</ele>
        <time>2016-07-31T09:00:57Z</time>
      </trkpt>
      <trkpt lat="42.44361" lon="0.06547">
        <ele>602.6</ele>
        <time>2016-07-31T09:00:58Z</time>
      </trkpt>
      <trkpt lat="42.44357" lon="0.06549">
        <ele>602.8</ele>
        <time>2016-07-31T09:00:59Z</time>
      </trkpt>
      <trkpt lat="42.44353" lon="0.06551">
        <ele>602.9</ele>
        <time>2016-07-31T09:01:00Z</time>
      </trkpt>
      <trkpt lat="42.44349" lon="0.06553">
        <ele>603</ele>
        <time>2016-07-31T09:01:01Z</time>
      </trkpt>
      <trkpt lat="42.44345" lon="0.06555">
        <ele>603.1</ele>
        <time>2016-07-31T09:01:02Z</time>
      </trkpt>
      <trkpt lat="42.44342" lon="0.06558">
        <ele>603.2</ele>
        <time>2016-07-31T09:01:03Z</time>
      </trkpt>
      <trkpt lat="42.44338" lon="0.0656">
        <ele>603.2</ele>
        <time>2016-07-31T09:01:04Z</time>
      </trkpt>
      <trkpt lat="42.44335" lon="0.06563">
        <ele>603.2</ele>
        <time>2016-07-31T09:01:05Z</time>
      </trkpt>
      <trkpt lat="42.44332" lon="0.06565">
        <ele>603.3</ele>
        <time>2016-07-31T09:01:06Z</time>
      </trkpt>
      <trkpt lat="42.44329" lon="0.06567">
        <ele>603.3</ele>
        <time>2016-07-31T09:01:07Z</time>
      </trkpt>
      <trkpt lat="42.44324" lon="0.06569">
        <ele>603.6</ele>
        <time>2016-07-31T09:01:09Z</time>
      </trkpt>
      <trkpt lat="42.44319" lon="0.06569">
        <ele>603.9</ele>
        <time>2016-07-31T09:01:11Z</time>
      </trkpt>
      <trkpt lat="42.44314" lon="0.06569">
        <ele>604.1</ele>
        <time>2016-07-31T09:01:13Z</time>
      </trkpt>
      <trkpt lat="42.4431" lon="0.06567">
        <ele>604.6</ele>
        <time>2016-07-31T09:01:15Z</time>
      </trkpt>
      <trkpt lat="42.44307" lon="0.06561">
        <ele>605.3</ele>
        <time>2016-07-31T09:01:17Z</time>
      </trkpt>
      <trkpt lat="42.44306" lon="0.06557">
        <ele>605.7</ele>
        <time>2016-07-31T09:01:18Z</time>
      </trkpt>
      <trkpt lat="42.44305" lon="0.06553">
        <ele>606.1</ele>
        <time>2016-07-31T09:01:19Z</time>
      </trkpt>
      <trkpt lat="42.44303" lon="0.0655">
        <ele>606.4</ele>
        <time>2016-07-31T09:01:20Z</time>
      </trkpt>
      <trkpt lat="42.443" lon="0.06545">
        <ele>607.1</ele>
        <time>2016-07-31T09:01:22Z</time>
      </trkpt>
      <trkpt lat="42.44297" lon="0.0654">
        <ele>607.9</ele>
        <time>2016-07-31T09:01:24Z</time>
      </trkpt>
      <trkpt lat="42.44293" lon="0.06535">
        <ele>608.7</ele>
        <time>2016-07-31T09:01:26Z</time>
      </trkpt>
      <trkpt lat="42.44289" lon="0.06531">
        <ele>609.3</ele>
        <time>2016-07-31T09:01:28Z</time>
      </trkpt>
      <trkpt lat="42.44285" lon="0.06527">
        <ele>609.8</ele>
        <time>2016-07-31T09:01:30Z</time>
      </trkpt>
      <trkpt lat="42.44282" lon="0.06523">
        <ele>610.3</ele>
        <time>2016-07-31T09:01:32Z</time>
      </trkpt>
      <trkpt lat="42.44278" lon="0.06519">
        <ele>610.8</ele>
        <time>2016-07-31T09:01:34Z</time>
      </trkpt>
      <trkpt lat="42.44274" lon="0.06517">
        <ele>611.1</ele>
        <time>2016-07-31T09:01:36Z</time>
      </trkpt>
      <trkpt lat="42.44269" lon="0.06515">
        <ele>611.3</ele>
        <time>2016-07-31T09:01:38Z</time>
      </trkpt>
      <trkpt lat="42.44264" lon="0.06514">
        <ele>611.4</ele>
        <time>2016-07-31T09:01:40Z</time>
      </trkpt>
      <trkpt lat="42.44259" lon="0.06514">
        <ele>611.5</ele>
        <time>2016-07-31T09:01:42Z</time>
      </trkpt>
      <trkpt lat="42.44255" lon="0.06513">
        <ele>611.6</ele>
        <time>2016-07-31T09:01:44Z</time>
      </trkpt>
      <trkpt lat="42.4425" lon="0.06513">
        <ele>611.6</ele>
        <time>2016-07-31T09:01:46Z</time>
      </trkpt>
      <trkpt lat="42.44246" lon="0.06512">
        <ele>611.7</ele>
        <time>2016-07-31T09:01:48Z</time>
      </trkpt>
      <trkpt lat="42.44241" lon="0.06511">
        <ele>611.8</ele>
        <time>2016-07-31T09:01:50Z</time>
      </trkpt>
      <trkpt lat="42.44236" lon="0.06511">
        <ele>611.9</ele>
        <time>2016-07-31T09:01:52Z</time>
      </trkpt>
      <trkpt lat="42.44231" lon="0.0651">
        <ele>612</ele>
        <time>2016-07-31T09:01:54Z</time>
      </trkpt>
      <trkpt lat="42.44226" lon="0.0651">
        <ele>612</ele>
        <time>2016-07-31T09:01:56Z</time>
      </trkpt>
      <trkpt lat="42.44222" lon="0.06511">
        <ele>611.9</ele>
        <time>2016-07-31T09:01:58Z</time>
      </trkpt>
      <trkpt lat="42.44217" lon="0.06511">
        <ele>611.9</ele>
        <time>2016-07-31T09:02:00Z</time>
      </trkpt>
      <trkpt lat="42.44213" lon="0.06511">
        <ele>612</ele>
        <time>2016-07-31T09:02:02Z</time>
      </trkpt>
      <trkpt lat="42.44208" lon="0.06509">
        <ele>612.1</ele>
        <time>2016-07-31T09:02:04Z</time>
      </trkpt>
      <trkpt lat="42.44204" lon="0.06509">
        <ele>612.1</ele>
        <time>2016-07-31T09:02:06Z</time>
      </trkpt>
      <trkpt lat="42.44199" lon="0.06508">
        <ele>612.1</ele>
        <time>2016-07-31T09:02:08Z</time>
      </trkpt>
      <trkpt lat="42.44194" lon="0.06506">
        <ele>612.2</ele>
        <time>2016-07-31T09:02:10Z</time>
      </trkpt>
      <trkpt lat="42.44191" lon="0.06505">
        <ele>612.3</ele>
        <time>2016-07-31T09:02:11Z</time>
      </trkpt>
      <trkpt lat="42.44189" lon="0.06503">
        <ele>612.3</ele>
        <time>2016-07-31T09:02:12Z</time>
      </trkpt>
      <trkpt lat="42.44186" lon="0.06502">
        <ele>612.4</ele>
        <time>2016-07-31T09:02:13Z</time>
      </trkpt>
      <trkpt lat="42.44184" lon="0.06501">
        <ele>612.5</ele>
        <time>2016-07-31T09:02:14Z</time>
      </trkpt>
      <trkpt lat="42.44181" lon="0.06499">
        <ele>612.6</ele>
        <time>2016-07-31T09:02:15Z</time>
      </trkpt>
      <trkpt lat="42.44178" lon="0.06498">
        <ele>612.6</ele>
        <time>2016-07-31T09:02:16Z</time>
      </trkpt>
      <trkpt lat="42.44176" lon="0.06497">
        <ele>612.6</ele>
        <time>2016-07-31T09:02:17Z</time>
      </trkpt>
      <trkpt lat="42.44173" lon="0.06496">
        <ele>612.7</ele>
        <time>2016-07-31T09:02:18Z</time>
      </trkpt>
      <trkpt lat="42.4417" lon="0.06495">
        <ele>612.8</ele>
        <time>2016-07-31T09:02:19Z</time>
      </trkpt>
      <trkpt lat="42.44168" lon="0.06494">
        <ele>612.8</ele>
        <time>2016-07-31T09:02:20Z</time>
      </trkpt>
      <trkpt lat="42.44165" lon="0.06492">
        <ele>612.9</ele>
        <time>2016-07-31T09:02:21Z</time>
      </trkpt>
      <trkpt lat="42.44163" lon="0.0649">
        <ele>613</ele>
        <time>2016-07-31T09:02:22Z</time>
      </trkpt>
      <trkpt lat="42.4416" lon="0.06489">
        <ele>613.1</ele>
        <time>2016-07-31T09:02:23Z</time>
      </trkpt>
      <trkpt lat="42.44155" lon="0.06486">
        <ele>613.3</ele>
        <time>2016-07-31T09:02:25Z</time>
      </trkpt>
      <trkpt lat="42.44151" lon="0.06482">
        <ele>613.5</ele>
        <time>2016-07-31T09:02:27Z</time>
      </trkpt>
      <trkpt lat="42.44146" lon="0.06479">
        <ele>613.7</ele>
        <time>2016-07-31T09:02:29Z</time>
      </trkpt>
      <trkpt lat="42.44144" lon="0.06477">
        <ele>613.8</ele>
        <time>2016-07-31T09:02:30Z</time>
      </trkpt>
      <trkpt lat="42.44142" lon="0.06476">
        <ele>613.9</ele>
        <time>2016-07-31T09:02:31Z</time>
      </trkpt>
      <trkpt lat="42.44139" lon="0.06474">
        <ele>614</ele>
        <time>2016-07-31T09:02:32Z</time>
      </trkpt>
      <trkpt lat="42.44137" lon="0.06472">
        <ele>614.1</ele>
        <time>2016-07-31T09:02:33Z</time>
      </trkpt>
      <trkpt lat="42.44134" lon="0.0647">
        <ele>614.2</ele>
        <time>2016-07-31T09:02:34Z</time>
      </trkpt>
      <trkpt lat="42.4413" lon="0.06466">
        <ele>614.4</ele>
        <time>2016-07-31T09:02:36Z</time>
      </trkpt>
      <trkpt lat="42.44125" lon="0.06463">
        <ele>614.6</ele>
        <time>2016-07-31T09:02:38Z</time>
      </trkpt>
      <trkpt lat="42.44123" lon="0.06461">
        <ele>614.9</ele>
        <time>2016-07-31T09:02:39Z</time>
      </trkpt>
      <trkpt lat="42.4412" lon="0.06459">
        <ele>615.2</ele>
        <time>2016-07-31T09:02:40Z</time>
      </trkpt>
      <trkpt lat="42.44116" lon="0.06456">
        <ele>615.9</ele>
        <time>2016-07-31T09:02:42Z</time>
      </trkpt>
      <trkpt lat="42.44112" lon="0.06453">
        <ele>616.6</ele>
        <time>2016-07-31T09:02:44Z</time>
      </trkpt>
      <trkpt lat="42.44108" lon="0.0645">
        <ele>617.2</ele>
        <time>2016-07-31T09:02:46Z</time>
      </trkpt>
      <trkpt lat="42.44105" lon="0.06447">
        <ele>617.9</ele>
        <time>2016-07-31T09:02:48Z</time>
      </trkpt>
      <trkpt lat="42.44101" lon="0.06445">
        <ele>618.5</ele>
        <time>2016-07-31T09:02:50Z</time>
      </trkpt>
      <trkpt lat="42.44097" lon="0.06442">
        <ele>619.1</ele>
        <time>2016-07-31T09:02:52Z</time>
      </trkpt>
      <trkpt lat="42.44094" lon="0.06439">
        <ele>619.8</ele>
        <time>2016-07-31T09:02:54Z</time>
      </trkpt>
      <trkpt lat="42.4409" lon="0.06435">
        <ele>620.5</ele>
        <time>2016-07-31T09:02:56Z</time>
      </trkpt>
      <trkpt lat="42.44086" lon="0.06432">
        <ele>621.1</ele>
        <time>2016-07-31T09:02:58Z</time>
      </trkpt>
      <trkpt lat="42.44082" lon="0.0643">
        <ele>621.6</ele>
        <time>2016-07-31T09:03:00Z</time>
      </trkpt>
      <trkpt lat="42.44079" lon="0.06427">
        <ele>622.2</ele>
        <time>2016-07-31T09:03:02Z</time>
      </trkpt>
      <trkpt lat="42.44075" lon="0.06425">
        <ele>622.7</ele>
        <time>2016-07-31T09:03:04Z</time>
      </trkpt>
      <trkpt lat="42.44071" lon="0.06423">
        <ele>623.2</ele>
        <time>2016-07-31T09:03:06Z</time>
      </trkpt>
      <trkpt lat="42.44066" lon="0.06421">
        <ele>623.6</ele>
        <time>2016-07-31T09:03:08Z</time>
      </trkpt>
      <trkpt lat="42.44062" lon="0.06419">
        <ele>624.1</ele>
        <time>2016-07-31T09:03:10Z</time>
      </trkpt>
      <trkpt lat="42.44058" lon="0.06416">
        <ele>624.6</ele>
        <time>2016-07-31T09:03:12Z</time>
      </trkpt>
      <trkpt lat="42.44055" lon="0.06413">
        <ele>625.2</ele>
        <time>2016-07-31T09:03:14Z</time>
      </trkpt>
      <trkpt lat="42.44052" lon="0.06409">
        <ele>625.8</ele>
        <time>2016-07-31T09:03:16Z</time>
      </trkpt>
      <trkpt lat="42.44048" lon="0.06406">
        <ele>626.4</ele>
        <time>2016-07-31T09:03:18Z</time>
      </trkpt>
      <trkpt lat="42.44045" lon="0.06403">
        <ele>627</ele>
        <time>2016-07-31T09:03:20Z</time>
      </trkpt>
      <trkpt lat="42.44041" lon="0.06399">
        <ele>627.5</ele>
        <time>2016-07-31T09:03:22Z</time>
      </trkpt>
      <trkpt lat="42.44038" lon="0.06396">
        <ele>628.2</ele>
        <time>2016-07-31T09:03:24Z</time>
      </trkpt>
      <trkpt lat="42.44036" lon="0.06391">
        <ele>629</ele>
        <time>2016-07-31T09:03:26Z</time>
      </trkpt>
      <trkpt lat="42.44034" lon="0.06387">
        <ele>629.8</ele>
        <time>2016-07-31T09:03:28Z</time>
      </trkpt>
      <trkpt lat="42.44033" lon="0.06382">
        <ele>630.6</ele>
        <time>2016-07-31T09:03:30Z</time>
      </trkpt>
      <trkpt lat="42.44033" lon="0.06377">
        <ele>631.3</ele>
        <time>2016-07-31T09:03:32Z</time>
      </trkpt>
      <trkpt lat="42.44033" lon="0.06373">
        <ele>632.2</ele>
        <time>2016-07-31T09:03:34Z</time>
      </trkpt>
      <trkpt lat="42.44035" lon="0.06369">
        <ele>633.2</ele>
        <time>2016-07-31T09:03:36Z</time>
      </trkpt>
      <trkpt lat="42.44036" lon="0.06365">
        <ele>634.1</ele>
        <time>2016-07-31T09:03:38Z</time>
      </trkpt>
      <trkpt lat="42.44038" lon="0.06361">
        <ele>634.8</ele>
        <time>2016-07-31T09:03:40Z</time>
      </trkpt>
      <trkpt lat="42.44041" lon="0.06358">
        <ele>635.3</ele>
        <time>2016-07-31T09:03:42Z</time>
      </trkpt>
      <trkpt lat="42.44044" lon="0.06356">
        <ele>635.7</ele>
        <time>2016-07-31T09:03:44Z</time>
      </trkpt>
      <trkpt lat="42.44048" lon="0.06355">
        <ele>635.9</ele>
        <time>2016-07-31T09:03:46Z</time>
      </trkpt>
      <trkpt lat="42.44052" lon="0.06354">
        <ele>636.2</ele>
        <time>2016-07-31T09:03:48Z</time>
      </trkpt>
      <trkpt lat="42.44055" lon="0.06351">
        <ele>636.8</ele>
        <time>2016-07-31T09:03:50Z</time>
      </trkpt>
      <trkpt lat="42.44059" lon="0.06348">
        <ele>637.5</ele>
        <time>2016-07-31T09:03:52Z</time>
      </trkpt>
      <trkpt lat="42.44062" lon="0.06346">
        <ele>638</ele>
        <time>2016-07-31T09:03:54Z</time>
      </trkpt>
      <trkpt lat="42.44066" lon="0.06343">
        <ele>638.6</ele>
        <time>2016-07-31T09:03:56Z</time>
      </trkpt>
      <trkpt lat="42.4407" lon="0.06341">
        <ele>639.2</ele>
        <time>2016-07-31T09:03:58Z</time>
      </trkpt>
      <trkpt lat="42.44074" lon="0.06338">
        <ele>639.8</ele>
        <time>2016-07-31T09:04:00Z</time>
      </trkpt>
      <trkpt lat="42.44077" lon="0.06335">
        <ele>640.3</ele>
        <time>2016-07-31T09:04:02Z</time>
      </trkpt>
      <trkpt lat="42.44081" lon="0.06333">
        <ele>640.8</ele>
        <time>2016-07-31T09:04:04Z</time>
      </trkpt>
      <trkpt lat="42.44084" lon="0.06331">
        <ele>641.3</ele>
        <time>2016-07-31T09:04:06Z</time>
      </trkpt>
      <trkpt lat="42.44088" lon="0.06329">
        <ele>641.7</ele>
        <time>2016-07-31T09:04:08Z</time>
      </trkpt>
      <trkpt lat="42.44091" lon="0.06328">
        <ele>641.9</ele>
        <time>2016-07-31T09:04:10Z</time>
      </trkpt>
      <trkpt lat="42.44095" lon="0.06326">
        <ele>642.2</ele>
        <time>2016-07-31T09:04:12Z</time>
      </trkpt>
      <trkpt lat="42.44099" lon="0.06324">
        <ele>642.7</ele>
        <time>2016-07-31T09:04:14Z</time>
      </trkpt>
      <trkpt lat="42.44102" lon="0.06322">
        <ele>643.2</ele>
        <time>2016-07-31T09:04:16Z</time>
      </trkpt>
      <trkpt lat="42.44104" lon="0.06318">
        <ele>644.2</ele>
        <time>2016-07-31T09:04:18Z</time>
      </trkpt>
      <trkpt lat="42.44105" lon="0.06313">
        <ele>645.4</ele>
        <time>2016-07-31T09:04:20Z</time>
      </trkpt>
      <trkpt lat="42.44103" lon="0.06307">
        <ele>646.7</ele>
        <time>2016-07-31T09:04:22Z</time>
      </trkpt>
      <trkpt lat="42.44099" lon="0.06304">
        <ele>647.6</ele>
        <time>2016-07-31T09:04:24Z</time>
      </trkpt>
      <trkpt lat="42.44094" lon="0.06303">
        <ele>648</ele>
        <time>2016-07-31T09:04:26Z</time>
      </trkpt>
      <trkpt lat="42.44089" lon="0.06304">
        <ele>648</ele>
        <time>2016-07-31T09:04:28Z</time>
      </trkpt>
      <trkpt lat="42.44085" lon="0.06304">
        <ele>647.9</ele>
        <time>2016-07-31T09:04:30Z</time>
      </trkpt>
      <trkpt lat="42.44081" lon="0.06305">
        <ele>647.9</ele>
        <time>2016-07-31T09:04:32Z</time>
      </trkpt>
      <trkpt lat="42.44076" lon="0.06305">
        <ele>648</ele>
        <time>2016-07-31T09:04:34Z</time>
      </trkpt>
      <trkpt lat="42.44072" lon="0.06304">
        <ele>648.2</ele>
        <time>2016-07-31T09:04:36Z</time>
      </trkpt>
      <trkpt lat="42.44068" lon="0.06303">
        <ele>648.6</ele>
        <time>2016-07-31T09:04:38Z</time>
      </trkpt>
      <trkpt lat="42.44064" lon="0.06301">
        <ele>649</ele>
        <time>2016-07-31T09:04:40Z</time>
      </trkpt>
      <trkpt lat="42.44061" lon="0.06299">
        <ele>649.7</ele>
        <time>2016-07-31T09:04:42Z</time>
      </trkpt>
      <trkpt lat="42.44058" lon="0.06296">
        <ele>650.5</ele>
        <time>2016-07-31T09:04:44Z</time>
      </trkpt>
      <trkpt lat="42.44055" lon="0.06293">
        <ele>651.5</ele>
        <time>2016-07-31T09:04:46Z</time>
      </trkpt>
      <trkpt lat="42.44053" lon="0.06288">
        <ele>652.7</ele>
        <time>2016-07-31T09:04:48Z</time>
      </trkpt>
      <trkpt lat="42.44053" lon="0.06283">
        <ele>654.3</ele>
        <time>2016-07-31T09:04:50Z</time>
      </trkpt>
      <trkpt lat="42.44055" lon="0.06279">
        <ele>655.7</ele>
        <time>2016-07-31T09:04:52Z</time>
      </trkpt>
      <trkpt lat="42.44058" lon="0.06275">
        <ele>656.6</ele>
        <time>2016-07-31T09:04:54Z</time>
      </trkpt>
      <trkpt lat="42.44062" lon="0.06275">
        <ele>656.7</ele>
        <time>2016-07-31T09:04:56Z</time>
      </trkpt>
      <trkpt lat="42.44066" lon="0.06276">
        <ele>656.3</ele>
        <time>2016-07-31T09:04:58Z</time>
      </trkpt>
      <trkpt lat="42.4407" lon="0.06279">
        <ele>655.4</ele>
        <time>2016-07-31T09:05:00Z</time>
      </trkpt>
      <trkpt lat="42.44074" lon="0.06282">
        <ele>654.3</ele>
        <time>2016-07-31T09:05:02Z</time>
      </trkpt>
      <trkpt lat="42.44078" lon="0.06285">
        <ele>653.1</ele>
        <time>2016-07-31T09:05:04Z</time>
      </trkpt>
      <trkpt lat="42.44081" lon="0.06288">
        <ele>652.2</ele>
        <time>2016-07-31T09:05:06Z</time>
      </trkpt>
      <trkpt lat="42.44085" lon="0.06289">
        <ele>651.8</ele>
        <time>2016-07-31T09:05:08Z</time>
      </trkpt>
      <trkpt lat="42.4409" lon="0.06289">
        <ele>651.6</ele>
        <time>2016-07-31T09:05:10Z</time>
      </trkpt>
      <trkpt lat="42.44094" lon="0.06288">
        <ele>651.8</ele>
        <time>2016-07-31T09:05:12Z</time>
      </trkpt>
      <trkpt lat="42.44098" lon="0.06287">
        <ele>652.2</ele>
        <time>2016-07-31T09:05:14Z</time>
      </trkpt>
      <trkpt lat="42.44102" lon="0.06286">
        <ele>652.5</ele>
        <time>2016-07-31T09:05:16Z</time>
      </trkpt>
      <trkpt lat="42.44107" lon="0.06284">
        <ele>653</ele>
        <time>2016-07-31T09:05:18Z</time>
      </trkpt>
      <trkpt lat="42.44111" lon="0.06282">
        <ele>653.5</ele>
        <time>2016-07-31T09:05:20Z</time>
      </trkpt>
      <trkpt lat="42.44115" lon="0.0628">
        <ele>654</ele>
        <time>2016-07-31T09:05:22Z</time>
      </trkpt>
      <trkpt lat="42.44118" lon="0.06278">
        <ele>654.8</ele>
        <time>2016-07-31T09:05:24Z</time>
      </trkpt>
      <trkpt lat="42.44122" lon="0.06276">
        <ele>655.4</ele>
        <time>2016-07-31T09:05:26Z</time>
      </trkpt>
      <trkpt lat="42.44126" lon="0.06274">
        <ele>656</ele>
        <time>2016-07-31T09:05:28Z</time>
      </trkpt>
      <trkpt lat="42.4413" lon="0.06273">
        <ele>656.6</ele>
        <time>2016-07-31T09:05:30Z</time>
      </trkpt>
      <trkpt lat="42.44134" lon="0.06272">
        <ele>657.2</ele>
        <time>2016-07-31T09:05:32Z</time>
      </trkpt>
      <trkpt lat="42.44139" lon="0.06271">
        <ele>657.7</ele>
        <time>2016-07-31T09:05:34Z</time>
      </trkpt>
      <trkpt lat="42.44143" lon="0.0627">
        <ele>658.1</ele>
        <time>2016-07-31T09:05:36Z</time>
      </trkpt>
      <trkpt lat="42.44148" lon="0.06269">
        <ele>658.7</ele>
        <time>2016-07-31T09:05:38Z</time>
      </trkpt>
      <trkpt lat="42.44151" lon="0.06267">
        <ele>659.7</ele>
        <time>2016-07-31T09:05:40Z</time>
      </trkpt>
      <trkpt lat="42.44154" lon="0.06264">
        <ele>661.1</ele>
        <time>2016-07-31T09:05:42Z</time>
      </trkpt>
      <trkpt lat="42.44155" lon="0.06259">
        <ele>662.8</ele>
        <time>2016-07-31T09:05:44Z</time>
      </trkpt>
      <trkpt lat="42.44153" lon="0.06254">
        <ele>664.4</ele>
        <time>2016-07-31T09:05:46Z</time>
      </trkpt>
      <trkpt lat="42.44148" lon="0.06251">
        <ele>664.9</ele>
        <time>2016-07-31T09:05:48Z</time>
      </trkpt>
      <trkpt lat="42.44143" lon="0.06252">
        <ele>664.4</ele>
        <time>2016-07-31T09:05:50Z</time>
      </trkpt>
      <trkpt lat="42.44138" lon="0.06254">
        <ele>663.4</ele>
        <time>2016-07-31T09:05:52Z</time>
      </trkpt>
      <trkpt lat="42.44134" lon="0.06256">
        <ele>662.5</ele>
        <time>2016-07-31T09:05:54Z</time>
      </trkpt>
      <trkpt lat="42.44129" lon="0.06258">
        <ele>661.7</ele>
        <time>2016-07-31T09:05:56Z</time>
      </trkpt>
      <trkpt lat="42.44124" lon="0.06258">
        <ele>661.2</ele>
        <time>2016-07-31T09:05:58Z</time>
      </trkpt>
      <trkpt lat="42.4412" lon="0.06259">
        <ele>661.2</ele>
        <time>2016-07-31T09:06:00Z</time>
      </trkpt>
      <trkpt lat="42.44116" lon="0.06258">
        <ele>661.3</ele>
        <time>2016-07-31T09:06:02Z</time>
      </trkpt>
      <trkpt lat="42.44112" lon="0.06257">
        <ele>661.6</ele>
        <time>2016-07-31T09:06:04Z</time>
      </trkpt>
      <trkpt lat="42.44108" lon="0.06256">
        <ele>662.3</ele>
        <time>2016-07-31T09:06:06Z</time>
      </trkpt>
      <trkpt lat="42.44105" lon="0.06253">
        <ele>663.1</ele>
        <time>2016-07-31T09:06:08Z</time>
      </trkpt>
      <trkpt lat="42.44102" lon="0.0625">
        <ele>664.1</ele>
        <time>2016-07-31T09:06:10Z</time>
      </trkpt>
      <trkpt lat="42.44099" lon="0.06248">
        <ele>665</ele>
        <time>2016-07-31T09:06:12Z</time>
      </trkpt>
      <trkpt lat="42.44096" lon="0.06245">
        <ele>665.9</ele>
        <time>2016-07-31T09:06:14Z</time>
      </trkpt>
      <trkpt lat="42.44093" lon="0.06242">
        <ele>666.7</ele>
        <time>2016-07-31T09:06:16Z</time>
      </trkpt>
      <trkpt lat="42.44091" lon="0.0624">
        <ele>667.5</ele>
        <time>2016-07-31T09:06:18Z</time>
      </trkpt>
      <trkpt lat="42.44088" lon="0.06237">
        <ele>668.3</ele>
        <time>2016-07-31T09:06:20Z</time>
      </trkpt>
      <trkpt lat="42.44085" lon="0.06235">
        <ele>669.1</ele>
        <time>2016-07-31T09:06:22Z</time>
      </trkpt>
      <trkpt lat="42.44082" lon="0.06232">
        <ele>669.9</ele>
        <time>2016-07-31T09:06:24Z</time>
      </trkpt>
      <trkpt lat="42.44079" lon="0.0623">
        <ele>670.7</ele>
        <time>2016-07-31T09:06:26Z</time>
      </trkpt>
      <trkpt lat="42.44076" lon="0.06227">
        <ele>671.5</ele>
        <time>2016-07-31T09:06:28Z</time>
      </trkpt>
      <trkpt lat="42.44073" lon="0.06225">
        <ele>672.2</ele>
        <time>2016-07-31T09:06:30Z</time>
      </trkpt>
      <trkpt lat="42.44071" lon="0.06223">
        <ele>672.7</ele>
        <time>2016-07-31T09:06:32Z</time>
      </trkpt>
      <trkpt lat="42.44068" lon="0.06221">
        <ele>673.4</ele>
        <time>2016-07-31T09:06:34Z</time>
      </trkpt>
      <trkpt lat="42.44066" lon="0.06218">
        <ele>674.4</ele>
        <time>2016-07-31T09:06:36Z</time>
      </trkpt>
      <trkpt lat="42.44066" lon="0.06213">
        <ele>675.9</ele>
        <time>2016-07-31T09:06:38Z</time>
      </trkpt>
      <trkpt lat="42.44067" lon="0.06208">
        <ele>677.4</ele>
        <time>2016-07-31T09:06:40Z</time>
      </trkpt>
      <trkpt lat="42.44071" lon="0.06206">
        <ele>678.2</ele>
        <time>2016-07-31T09:06:42Z</time>
      </trkpt>
      <trkpt lat="42.44075" lon="0.06205">
        <ele>678.4</ele>
        <time>2016-07-31T09:06:44Z</time>
      </trkpt>
      <trkpt lat="42.44079" lon="0.06207">
        <ele>677.9</ele>
        <time>2016-07-31T09:06:46Z</time>
      </trkpt>
      <trkpt lat="42.44083" lon="0.06209">
        <ele>677.3</ele>
        <time>2016-07-31T09:06:48Z</time>
      </trkpt>
      <trkpt lat="42.44088" lon="0.06211">
        <ele>676.8</ele>
        <time>2016-07-31T09:06:50Z</time>
      </trkpt>
      <trkpt lat="42.44092" lon="0.06212">
        <ele>676.4</ele>
        <time>2016-07-31T09:06:52Z</time>
      </trkpt>
      <trkpt lat="42.44096" lon="0.06214">
        <ele>675.9</ele>
        <time>2016-07-31T09:06:54Z</time>
      </trkpt>
      <trkpt lat="42.44099" lon="0.06215">
        <ele>675.5</ele>
        <time>2016-07-31T09:06:56Z</time>
      </trkpt>
      <trkpt lat="42.44103" lon="0.06217">
        <ele>675</ele>
        <time>2016-07-31T09:06:58Z</time>
      </trkpt>
      <trkpt lat="42.44107" lon="0.06218">
        <ele>674.6</ele>
        <time>2016-07-31T09:07:00Z</time>
      </trkpt>
      <trkpt lat="42.4411" lon="0.0622">
        <ele>674.1</ele>
        <time>2016-07-31T09:07:02Z</time>
      </trkpt>
      <trkpt lat="42.44114" lon="0.06221">
        <ele>673.6</ele>
        <time>2016-07-31T09:07:04Z</time>
      </trkpt>
      <trkpt lat="42.44117" lon="0.06223">
        <ele>673</ele>
        <time>2016-07-31T09:07:06Z</time>
      </trkpt>
      <trkpt lat="42.44121" lon="0.06224">
        <ele>672.6</ele>
        <time>2016-07-31T09:07:08Z</time>
      </trkpt>
      <trkpt lat="42.44124" lon="0.06225">
        <ele>672.4</ele>
        <time>2016-07-31T09:07:10Z</time>
      </trkpt>
      <trkpt lat="42.44127" lon="0.06226">
        <ele>672.3</ele>
        <time>2016-07-31T09:07:12Z</time>
      </trkpt>
      <trkpt lat="42.4413" lon="0.06226">
        <ele>672.5</ele>
        <time>2016-07-31T09:07:14Z</time>
      </trkpt>
      <trkpt lat="42.44133" lon="0.06225">
        <ele>673.1</ele>
        <time>2016-07-31T09:07:16Z</time>
      </trkpt>
      <trkpt lat="42.44136" lon="0.06223">
        <ele>673.8</ele>
        <time>2016-07-31T09:07:18Z</time>
      </trkpt>
      <trkpt lat="42.44139" lon="0.06221">
        <ele>674.6</ele>
        <time>2016-07-31T09:07:20Z</time>
      </trkpt>
      <trkpt lat="42.44141" lon="0.06218">
        <ele>675.8</ele>
        <time>2016-07-31T09:07:22Z</time>
      </trkpt>
      <trkpt lat="42.44142" lon="0.06214">
        <ele>677.3</ele>
        <time>2016-07-31T09:07:24Z</time>
      </trkpt>
      <trkpt lat="42.44143" lon="0.0621">
        <ele>678.9</ele>
        <time>2016-07-31T09:07:26Z</time>
      </trkpt>
      <trkpt lat="42.44143" lon="0.06205">
        <ele>680.4</ele>
        <time>2016-07-31T09:07:28Z</time>
      </trkpt>
      <trkpt lat="42.44144" lon="0.062">
        <ele>681.8</ele>
        <time>2016-07-31T09:07:30Z</time>
      </trkpt>
      <trkpt lat="42.44144" lon="0.06195">
        <ele>683.3</ele>
        <time>2016-07-31T09:07:32Z</time>
      </trkpt>
      <trkpt lat="42.44145" lon="0.06191">
        <ele>684.6</ele>
        <time>2016-07-31T09:07:34Z</time>
      </trkpt>
      <trkpt lat="42.44148" lon="0.06188">
        <ele>685.8</ele>
        <time>2016-07-31T09:07:36Z</time>
      </trkpt>
      <trkpt lat="42.44151" lon="0.06186">
        <ele>686.6</ele>
        <time>2016-07-31T09:07:38Z</time>
      </trkpt>
      <trkpt lat="42.44154" lon="0.06186">
        <ele>687.2</ele>
        <time>2016-07-31T09:07:40Z</time>
      </trkpt>
      <trkpt lat="42.44158" lon="0.06185">
        <ele>687.7</ele>
        <time>2016-07-31T09:07:42Z</time>
      </trkpt>
      <trkpt lat="42.44162" lon="0.06186">
        <ele>687.7</ele>
        <time>2016-07-31T09:07:44Z</time>
      </trkpt>
      <trkpt lat="42.44165" lon="0.06188">
        <ele>687.4</ele>
        <time>2016-07-31T09:07:46Z</time>
      </trkpt>
      <trkpt lat="42.44168" lon="0.0619">
        <ele>687.1</ele>
        <time>2016-07-31T09:07:48Z</time>
      </trkpt>
      <trkpt lat="42.44172" lon="0.06192">
        <ele>686.9</ele>
        <time>2016-07-31T09:07:50Z</time>
      </trkpt>
      <trkpt lat="42.44175" lon="0.06193">
        <ele>686.7</ele>
        <time>2016-07-31T09:07:52Z</time>
      </trkpt>
      <trkpt lat="42.44178" lon="0.06194">
        <ele>686.5</ele>
        <time>2016-07-31T09:07:54Z</time>
      </trkpt>
      <trkpt lat="42.44181" lon="0.06195">
        <ele>686.5</ele>
        <time>2016-07-31T09:07:56Z</time>
      </trkpt>
      <trkpt lat="42.44184" lon="0.06197">
        <ele>686.3</ele>
        <time>2016-07-31T09:07:58Z</time>
      </trkpt>
      <trkpt lat="42.44187" lon="0.06198">
        <ele>685.9</ele>
        <time>2016-07-31T09:08:00Z</time>
      </trkpt>
      <trkpt lat="42.4419" lon="0.062">
        <ele>685.5</ele>
        <time>2016-07-31T09:08:02Z</time>
      </trkpt>
      <trkpt lat="42.44193" lon="0.06203">
        <ele>684.8</ele>
        <time>2016-07-31T09:08:04Z</time>
      </trkpt>
      <trkpt lat="42.44196" lon="0.06206">
        <ele>684</ele>
        <time>2016-07-31T09:08:06Z</time>
      </trkpt>
      <trkpt lat="42.44199" lon="0.06209">
        <ele>683.1</ele>
        <time>2016-07-31T09:08:08Z</time>
      </trkpt>
      <trkpt lat="42.44201" lon="0.06212">
        <ele>682.3</ele>
        <time>2016-07-31T09:08:10Z</time>
      </trkpt>
      <trkpt lat="42.44204" lon="0.06214">
        <ele>681.6</ele>
        <time>2016-07-31T09:08:12Z</time>
      </trkpt>
      <trkpt lat="42.44207" lon="0.06217">
        <ele>681</ele>
        <time>2016-07-31T09:08:14Z</time>
      </trkpt>
      <trkpt lat="42.4421" lon="0.06219">
        <ele>680.5</ele>
        <time>2016-07-31T09:08:16Z</time>
      </trkpt>
      <trkpt lat="42.44214" lon="0.06221">
        <ele>680.1</ele>
        <time>2016-07-31T09:08:18Z</time>
      </trkpt>
      <trkpt lat="42.44217" lon="0.06223">
        <ele>679.5</ele>
        <time>2016-07-31T09:08:20Z</time>
      </trkpt>
      <trkpt lat="42.4422" lon="0.06225">
        <ele>679.3</ele>
        <time>2016-07-31T09:08:22Z</time>
      </trkpt>
      <trkpt lat="42.44224" lon="0.06225">
        <ele>679.6</ele>
        <time>2016-07-31T09:08:24Z</time>
      </trkpt>
      <trkpt lat="42.44227" lon="0.06226">
        <ele>679.8</ele>
        <time>2016-07-31T09:08:26Z</time>
      </trkpt>
      <trkpt lat="42.44231" lon="0.06226">
        <ele>680.1</ele>
        <time>2016-07-31T09:08:28Z</time>
      </trkpt>
      <trkpt lat="42.44233" lon="0.06224">
        <ele>681</ele>
        <time>2016-07-31T09:08:30Z</time>
      </trkpt>
      <trkpt lat="42.44235" lon="0.0622">
        <ele>682.7</ele>
        <time>2016-07-31T09:08:32Z</time>
      </trkpt>
      <trkpt lat="42.44234" lon="0.06215">
        <ele>684.3</ele>
        <time>2016-07-31T09:08:34Z</time>
      </trkpt>
      <trkpt lat="42.44232" lon="0.06211">
        <ele>685.5</ele>
        <time>2016-07-31T09:08:36Z</time>
      </trkpt>
      <trkpt lat="42.44229" lon="0.06208">
        <ele>686</ele>
        <time>2016-07-31T09:08:38Z</time>
      </trkpt>
      <trkpt lat="42.44226" lon="0.06207">
        <ele>686.3</ele>
        <time>2016-07-31T09:08:40Z</time>
      </trkpt>
      <trkpt lat="42.44223" lon="0.06206">
        <ele>686.4</ele>
        <time>2016-07-31T09:08:42Z</time>
      </trkpt>
      <trkpt lat="42.4422" lon="0.06204">
        <ele>686.5</ele>
        <time>2016-07-31T09:08:44Z</time>
      </trkpt>
      <trkpt lat="42.44217" lon="0.06202">
        <ele>687.2</ele>
        <time>2016-07-31T09:08:46Z</time>
      </trkpt>
      <trkpt lat="42.44214" lon="0.06199">
        <ele>688</ele>
        <time>2016-07-31T09:08:48Z</time>
      </trkpt>
      <trkpt lat="42.44212" lon="0.06196">
        <ele>688.9</ele>
        <time>2016-07-31T09:08:50Z</time>
      </trkpt>
      <trkpt lat="42.44209" lon="0.06193">
        <ele>689.7</ele>
        <time>2016-07-31T09:08:52Z</time>
      </trkpt>
      <trkpt lat="42.44206" lon="0.0619">
        <ele>690.5</ele>
        <time>2016-07-31T09:08:54Z</time>
      </trkpt>
      <trkpt lat="42.44204" lon="0.06188">
        <ele>691.2</ele>
        <time>2016-07-31T09:08:56Z</time>
      </trkpt>
      <trkpt lat="42.44201" lon="0.06185">
        <ele>691.8</ele>
        <time>2016-07-31T09:08:58Z</time>
      </trkpt>
      <trkpt lat="42.44198" lon="0.06183">
        <ele>692.4</ele>
        <time>2016-07-31T09:09:00Z</time>
      </trkpt>
      <trkpt lat="42.44196" lon="0.06181">
        <ele>693</ele>
        <time>2016-07-31T09:09:02Z</time>
      </trkpt>
      <trkpt lat="42.44193" lon="0.06179">
        <ele>693.4</ele>
        <time>2016-07-31T09:09:04Z</time>
      </trkpt>
      <trkpt lat="42.44191" lon="0.06176">
        <ele>694.1</ele>
        <time>2016-07-31T09:09:06Z</time>
      </trkpt>
      <trkpt lat="42.44189" lon="0.06173">
        <ele>694.9</ele>
        <time>2016-07-31T09:09:08Z</time>
      </trkpt>
      <trkpt lat="42.44187" lon="0.06171">
        <ele>695.6</ele>
        <time>2016-07-31T09:09:10Z</time>
      </trkpt>
      <trkpt lat="42.44184" lon="0.06168">
        <ele>696.2</ele>
        <time>2016-07-31T09:09:12Z</time>
      </trkpt>
      <trkpt lat="42.44182" lon="0.06165">
        <ele>697</ele>
        <time>2016-07-31T09:09:14Z</time>
      </trkpt>
      <trkpt lat="42.44179" lon="0.06162">
        <ele>697.7</ele>
        <time>2016-07-31T09:09:16Z</time>
      </trkpt>
      <trkpt lat="42.44178" lon="0.06158">
        <ele>698.8</ele>
        <time>2016-07-31T09:09:18Z</time>
      </trkpt>
      <trkpt lat="42.44179" lon="0.06154">
        <ele>700.2</ele>
        <time>2016-07-31T09:09:20Z</time>
      </trkpt>
      <trkpt lat="42.44182" lon="0.06152">
        <ele>701.3</ele>
        <time>2016-07-31T09:09:22Z</time>
      </trkpt>
      <trkpt lat="42.44185" lon="0.06151">
        <ele>702</ele>
        <time>2016-07-31T09:09:24Z</time>
      </trkpt>
      <trkpt lat="42.44188" lon="0.06152">
        <ele>702.3</ele>
        <time>2016-07-31T09:09:26Z</time>
      </trkpt>
      <trkpt lat="42.44191" lon="0.06153">
        <ele>702.2</ele>
        <time>2016-07-31T09:09:28Z</time>
      </trkpt>
      <trkpt lat="42.44195" lon="0.06156">
        <ele>701.8</ele>
        <time>2016-07-31T09:09:30Z</time>
      </trkpt>
      <trkpt lat="42.44198" lon="0.06158">
        <ele>701.4</ele>
        <time>2016-07-31T09:09:32Z</time>
      </trkpt>
      <trkpt lat="42.44201" lon="0.0616">
        <ele>701.1</ele>
        <time>2016-07-31T09:09:34Z</time>
      </trkpt>
      <trkpt lat="42.44204" lon="0.06162">
        <ele>700.6</ele>
        <time>2016-07-31T09:09:36Z</time>
      </trkpt>
      <trkpt lat="42.44207" lon="0.06164">
        <ele>700.4</ele>
        <time>2016-07-31T09:09:38Z</time>
      </trkpt>
      <trkpt lat="42.4421" lon="0.06165">
        <ele>700.2</ele>
        <time>2016-07-31T09:09:40Z</time>
      </trkpt>
      <trkpt lat="42.44213" lon="0.06166">
        <ele>700</ele>
        <time>2016-07-31T09:09:42Z</time>
      </trkpt>
      <trkpt lat="42.44216" lon="0.06167">
        <ele>699.7</ele>
        <time>2016-07-31T09:09:44Z</time>
      </trkpt>
      <trkpt lat="42.44219" lon="0.06169">
        <ele>699.3</ele>
        <time>2016-07-31T09:09:46Z</time>
      </trkpt>
      <trkpt lat="42.44222" lon="0.0617">
        <ele>699</ele>
        <time>2016-07-31T09:09:48Z</time>
      </trkpt>
      <trkpt lat="42.44225" lon="0.06171">
        <ele>698.7</ele>
        <time>2016-07-31T09:09:50Z</time>
      </trkpt>
      <trkpt lat="42.44228" lon="0.06173">
        <ele>698.3</ele>
        <time>2016-07-31T09:09:52Z</time>
      </trkpt>
      <trkpt lat="42.44231" lon="0.06175">
        <ele>698</ele>
        <time>2016-07-31T09:09:54Z</time>
      </trkpt>
      <trkpt lat="42.44234" lon="0.06175">
        <ele>698.1</ele>
        <time>2016-07-31T09:09:56Z</time>
      </trkpt>
      <trkpt lat="42.44237" lon="0.06175">
        <ele>698.1</ele>
        <time>2016-07-31T09:09:58Z</time>
      </trkpt>
      <trkpt lat="42.4424" lon="0.06175">
        <ele>698.3</ele>
        <time>2016-07-31T09:10:00Z</time>
      </trkpt>
      <trkpt lat="42.44242" lon="0.06173">
        <ele>699.1</ele>
        <time>2016-07-31T09:10:02Z</time>
      </trkpt>
      <trkpt lat="42.44244" lon="0.06171">
        <ele>700.1</ele>
        <time>2016-07-31T09:10:04Z</time>
      </trkpt>
      <trkpt lat="42.44247" lon="0.06167">
        <ele>701.5</ele>
        <time>2016-07-31T09:10:07Z</time>
      </trkpt>
      <trkpt lat="42.44247" lon="0.06163">
        <ele>702.8</ele>
        <time>2016-07-31T09:10:09Z</time>
      </trkpt>
      <trkpt lat="42.44248" lon="0.0616">
        <ele>704</ele>
        <time>2016-07-31T09:10:11Z</time>
      </trkpt>
      <trkpt lat="42.44248" lon="0.06156">
        <ele>705.2</ele>
        <time>2016-07-31T09:10:13Z</time>
      </trkpt>
      <trkpt lat="42.44245" lon="0.06151">
        <ele>706.7</ele>
        <time>2016-07-31T09:10:16Z</time>
      </trkpt>
      <trkpt lat="42.44243" lon="0.06149">
        <ele>707.3</ele>
        <time>2016-07-31T09:10:18Z</time>
      </trkpt>
      <trkpt lat="42.4424" lon="0.06148">
        <ele>707.5</ele>
        <time>2016-07-31T09:10:20Z</time>
      </trkpt>
      <trkpt lat="42.44237" lon="0.06148">
        <ele>707.5</ele>
        <time>2016-07-31T09:10:22Z</time>
      </trkpt>
      <trkpt lat="42.44234" lon="0.06147">
        <ele>707.6</ele>
        <time>2016-07-31T09:10:24Z</time>
      </trkpt>
      <trkpt lat="42.44231" lon="0.06147">
        <ele>707.7</ele>
        <time>2016-07-31T09:10:26Z</time>
      </trkpt>
      <trkpt lat="42.44228" lon="0.06147">
        <ele>707.7</ele>
        <time>2016-07-31T09:10:28Z</time>
      </trkpt>
      <trkpt lat="42.44225" lon="0.06145">
        <ele>708.2</ele>
        <time>2016-07-31T09:10:31Z</time>
      </trkpt>
      <trkpt lat="42.44222" lon="0.06143">
        <ele>708.9</ele>
        <time>2016-07-31T09:10:33Z</time>
      </trkpt>
      <trkpt lat="42.4422" lon="0.0614">
        <ele>709.7</ele>
        <time>2016-07-31T09:10:35Z</time>
      </trkpt>
      <trkpt lat="42.44217" lon="0.06138">
        <ele>710.4</ele>
        <time>2016-07-31T09:10:37Z</time>
      </trkpt>
      <trkpt lat="42.44215" lon="0.06136">
        <ele>711.2</ele>
        <time>2016-07-31T09:10:39Z</time>
      </trkpt>
      <trkpt lat="42.44211" lon="0.06133">
        <ele>712.2</ele>
        <time>2016-07-31T09:10:42Z</time>
      </trkpt>
      <trkpt lat="42.4421" lon="0.0613">
        <ele>713.2</ele>
        <time>2016-07-31T09:10:44Z</time>
      </trkpt>
      <trkpt lat="42.44208" lon="0.06126">
        <ele>714.6</ele>
        <time>2016-07-31T09:10:47Z</time>
      </trkpt>
      <trkpt lat="42.44209" lon="0.06121">
        <ele>716.2</ele>
        <time>2016-07-31T09:10:50Z</time>
      </trkpt>
      <trkpt lat="42.44212" lon="0.06119">
        <ele>716.7</ele>
        <time>2016-07-31T09:10:52Z</time>
      </trkpt>
      <trkpt lat="42.44215" lon="0.0612">
        <ele>716.5</ele>
        <time>2016-07-31T09:10:54Z</time>
      </trkpt>
      <trkpt lat="42.44218" lon="0.06122">
        <ele>716</ele>
        <time>2016-07-31T09:10:56Z</time>
      </trkpt>
      <trkpt lat="42.44221" lon="0.06124">
        <ele>715.4</ele>
        <time>2016-07-31T09:10:58Z</time>
      </trkpt>
      <trkpt lat="42.44224" lon="0.06126">
        <ele>714.7</ele>
        <time>2016-07-31T09:11:00Z</time>
      </trkpt>
      <trkpt lat="42.44227" lon="0.06128">
        <ele>714.1</ele>
        <time>2016-07-31T09:11:02Z</time>
      </trkpt>
      <trkpt lat="42.4423" lon="0.0613">
        <ele>713.6</ele>
        <time>2016-07-31T09:11:04Z</time>
      </trkpt>
      <trkpt lat="42.44233" lon="0.06131">
        <ele>713.3</ele>
        <time>2016-07-31T09:11:06Z</time>
      </trkpt>
      <trkpt lat="42.44237" lon="0.06132">
        <ele>713.1</ele>
        <time>2016-07-31T09:11:09Z</time>
      </trkpt>
      <trkpt lat="42.4424" lon="0.0613">
        <ele>713.8</ele>
        <time>2016-07-31T09:11:12Z</time>
      </trkpt>
      <trkpt lat="42.44242" lon="0.06126">
        <ele>715</ele>
        <time>2016-07-31T09:11:14Z</time>
      </trkpt>
      <trkpt lat="42.44244" lon="0.06122">
        <ele>716.2</ele>
        <time>2016-07-31T09:11:16Z</time>
      </trkpt>
      <trkpt lat="42.44245" lon="0.06118">
        <ele>717.4</ele>
        <time>2016-07-31T09:11:18Z</time>
      </trkpt>
      <trkpt lat="42.44245" lon="0.06114">
        <ele>718.8</ele>
        <time>2016-07-31T09:11:20Z</time>
      </trkpt>
      <trkpt lat="42.44245" lon="0.0611">
        <ele>720.1</ele>
        <time>2016-07-31T09:11:22Z</time>
      </trkpt>
      <trkpt lat="42.44244" lon="0.06105">
        <ele>721.6</ele>
        <time>2016-07-31T09:11:24Z</time>
      </trkpt>
      <trkpt lat="42.44245" lon="0.061">
        <ele>722.9</ele>
        <time>2016-07-31T09:11:26Z</time>
      </trkpt>
      <trkpt lat="42.44246" lon="0.06096">
        <ele>724.2</ele>
        <time>2016-07-31T09:11:28Z</time>
      </trkpt>
      <trkpt lat="42.44247" lon="0.06092">
        <ele>725.4</ele>
        <time>2016-07-31T09:11:30Z</time>
      </trkpt>
      <trkpt lat="42.44249" lon="0.06089">
        <ele>726.4</ele>
        <time>2016-07-31T09:11:32Z</time>
      </trkpt>
      <trkpt lat="42.44252" lon="0.06087">
        <ele>727.2</ele>
        <time>2016-07-31T09:11:34Z</time>
      </trkpt>
      <trkpt lat="42.44254" lon="0.06085">
        <ele>728</ele>
        <time>2016-07-31T09:11:36Z</time>
      </trkpt>
      <trkpt lat="42.44257" lon="0.06083">
        <ele>728.7</ele>
        <time>2016-07-31T09:11:38Z</time>
      </trkpt>
      <trkpt lat="42.4426" lon="0.06082">
        <ele>729</ele>
        <time>2016-07-31T09:11:40Z</time>
      </trkpt>
      <trkpt lat="42.44264" lon="0.06083">
        <ele>728.7</ele>
        <time>2016-07-31T09:11:43Z</time>
      </trkpt>
      <trkpt lat="42.44267" lon="0.06086">
        <ele>728</ele>
        <time>2016-07-31T09:11:45Z</time>
      </trkpt>
      <trkpt lat="42.4427" lon="0.06089">
        <ele>727.1</ele>
        <time>2016-07-31T09:11:47Z</time>
      </trkpt>
      <trkpt lat="42.44273" lon="0.06092">
        <ele>726.1</ele>
        <time>2016-07-31T09:11:49Z</time>
      </trkpt>
      <trkpt lat="42.44276" lon="0.06096">
        <ele>725.1</ele>
        <time>2016-07-31T09:11:51Z</time>
      </trkpt>
      <trkpt lat="42.44279" lon="0.061">
        <ele>724</ele>
        <time>2016-07-31T09:11:53Z</time>
      </trkpt>
      <trkpt lat="42.44282" lon="0.06103">
        <ele>722.9</ele>
        <time>2016-07-31T09:11:55Z</time>
      </trkpt>
      <trkpt lat="42.44285" lon="0.06107">
        <ele>721.8</ele>
        <time>2016-07-31T09:11:57Z</time>
      </trkpt>
      <trkpt lat="42.44288" lon="0.0611">
        <ele>720.7</ele>
        <time>2016-07-31T09:11:59Z</time>
      </trkpt>
      <trkpt lat="42.4429" lon="0.06114">
        <ele>719.5</ele>
        <time>2016-07-31T09:12:01Z</time>
      </trkpt>
      <trkpt lat="42.44293" lon="0.06118">
        <ele>718.3</ele>
        <time>2016-07-31T09:12:03Z</time>
      </trkpt>
      <trkpt lat="42.44296" lon="0.06122">
        <ele>717.4</ele>
        <time>2016-07-31T09:12:05Z</time>
      </trkpt>
      <trkpt lat="42.44299" lon="0.06126">
        <ele>716.7</ele>
        <time>2016-07-31T09:12:07Z</time>
      </trkpt>
      <trkpt lat="42.44302" lon="0.06129">
        <ele>716</ele>
        <time>2016-07-31T09:12:09Z</time>
      </trkpt>
      <trkpt lat="42.44305" lon="0.06133">
        <ele>715.4</ele>
        <time>2016-07-31T09:12:11Z</time>
      </trkpt>
      <trkpt lat="42.44307" lon="0.06136">
        <ele>714.8</ele>
        <time>2016-07-31T09:12:13Z</time>
      </trkpt>
      <trkpt lat="42.4431" lon="0.06139">
        <ele>714.2</ele>
        <time>2016-07-31T09:12:15Z</time>
      </trkpt>
      <trkpt lat="42.44313" lon="0.06142">
        <ele>713.8</ele>
        <time>2016-07-31T09:12:17Z</time>
      </trkpt>
      <trkpt lat="42.44316" lon="0.06144">
        <ele>713.5</ele>
        <time>2016-07-31T09:12:19Z</time>
      </trkpt>
      <trkpt lat="42.44319" lon="0.06146">
        <ele>713.3</ele>
        <time>2016-07-31T09:12:21Z</time>
      </trkpt>
      <trkpt lat="42.44323" lon="0.06148">
        <ele>713.2</ele>
        <time>2016-07-31T09:12:23Z</time>
      </trkpt>
      <trkpt lat="42.44326" lon="0.06149">
        <ele>713.2</ele>
        <time>2016-07-31T09:12:25Z</time>
      </trkpt>
      <trkpt lat="42.44329" lon="0.06151">
        <ele>713.1</ele>
        <time>2016-07-31T09:12:27Z</time>
      </trkpt>
      <trkpt lat="42.44331" lon="0.06153">
        <ele>712.8</ele>
        <time>2016-07-31T09:12:29Z</time>
      </trkpt>
      <trkpt lat="42.44334" lon="0.06153">
        <ele>713.1</ele>
        <time>2016-07-31T09:12:31Z</time>
      </trkpt>
      <trkpt lat="42.44336" lon="0.0615">
        <ele>714.3</ele>
        <time>2016-07-31T09:12:33Z</time>
      </trkpt>
      <trkpt lat="42.44337" lon="0.06145">
        <ele>715.8</ele>
        <time>2016-07-31T09:12:35Z</time>
      </trkpt>
      <trkpt lat="42.44336" lon="0.0614">
        <ele>717.1</ele>
        <time>2016-07-31T09:12:37Z</time>
      </trkpt>
      <trkpt lat="42.44334" lon="0.06136">
        <ele>717.9</ele>
        <time>2016-07-31T09:12:39Z</time>
      </trkpt>
      <trkpt lat="42.44331" lon="0.06133">
        <ele>718.4</ele>
        <time>2016-07-31T09:12:41Z</time>
      </trkpt>
      <trkpt lat="42.44328" lon="0.0613">
        <ele>719</ele>
        <time>2016-07-31T09:12:43Z</time>
      </trkpt>
      <trkpt lat="42.44326" lon="0.06127">
        <ele>719.6</ele>
        <time>2016-07-31T09:12:45Z</time>
      </trkpt>
      <trkpt lat="42.44324" lon="0.06124">
        <ele>720.1</ele>
        <time>2016-07-31T09:12:47Z</time>
      </trkpt>
      <trkpt lat="42.44321" lon="0.06121">
        <ele>720.8</ele>
        <time>2016-07-31T09:12:49Z</time>
      </trkpt>
      <trkpt lat="42.4432" lon="0.06118">
        <ele>721.7</ele>
        <time>2016-07-31T09:12:51Z</time>
      </trkpt>
      <trkpt lat="42.44319" lon="0.06115">
        <ele>722.6</ele>
        <time>2016-07-31T09:12:53Z</time>
      </trkpt>
      <trkpt lat="42.44316" lon="0.06111">
        <ele>723.4</ele>
        <time>2016-07-31T09:12:55Z</time>
      </trkpt>
      <trkpt lat="42.44314" lon="0.06108">
        <ele>724.1</ele>
        <time>2016-07-31T09:12:57Z</time>
      </trkpt>
      <trkpt lat="42.44312" lon="0.06105">
        <ele>724.9</ele>
        <time>2016-07-31T09:12:59Z</time>
      </trkpt>
      <trkpt lat="42.4431" lon="0.06102">
        <ele>725.6</ele>
        <time>2016-07-31T09:13:01Z</time>
      </trkpt>
      <trkpt lat="42.44308" lon="0.06099">
        <ele>726.4</ele>
        <time>2016-07-31T09:13:03Z</time>
      </trkpt>
      <trkpt lat="42.44306" lon="0.06095">
        <ele>727.3</ele>
        <time>2016-07-31T09:13:05Z</time>
      </trkpt>
      <trkpt lat="42.44304" lon="0.06092">
        <ele>728.2</ele>
        <time>2016-07-31T09:13:07Z</time>
      </trkpt>
      <trkpt lat="42.44302" lon="0.06089">
        <ele>729</ele>
        <time>2016-07-31T09:13:09Z</time>
      </trkpt>
      <trkpt lat="42.443" lon="0.06085">
        <ele>730</ele>
        <time>2016-07-31T09:13:11Z</time>
      </trkpt>
      <trkpt lat="42.44298" lon="0.06081">
        <ele>730.9</ele>
        <time>2016-07-31T09:13:13Z</time>
      </trkpt>
      <trkpt lat="42.44296" lon="0.06078">
        <ele>731.7</ele>
        <time>2016-07-31T09:13:15Z</time>
      </trkpt>
      <trkpt lat="42.44294" lon="0.06075">
        <ele>732.6</ele>
        <time>2016-07-31T09:13:17Z</time>
      </trkpt>
      <trkpt lat="42.44292" lon="0.06071">
        <ele>733.4</ele>
        <time>2016-07-31T09:13:19Z</time>
      </trkpt>
      <trkpt lat="42.4429" lon="0.06068">
        <ele>734.4</ele>
        <time>2016-07-31T09:13:21Z</time>
      </trkpt>
      <trkpt lat="42.44288" lon="0.06064">
        <ele>735.7</ele>
        <time>2016-07-31T09:13:23Z</time>
      </trkpt>
      <trkpt lat="42.44286" lon="0.0606">
        <ele>736.8</ele>
        <time>2016-07-31T09:13:25Z</time>
      </trkpt>
      <trkpt lat="42.44284" lon="0.06057">
        <ele>737.7</ele>
        <time>2016-07-31T09:13:27Z</time>
      </trkpt>
      <trkpt lat="42.44281" lon="0.06052">
        <ele>739.3</ele>
        <time>2016-07-31T09:13:30Z</time>
      </trkpt>
      <trkpt lat="42.44279" lon="0.06049">
        <ele>740.2</ele>
        <time>2016-07-31T09:13:32Z</time>
      </trkpt>
      <trkpt lat="42.44276" lon="0.06046">
        <ele>741</ele>
        <time>2016-07-31T09:13:34Z</time>
      </trkpt>
      <trkpt lat="42.44273" lon="0.06043">
        <ele>741.8</ele>
        <time>2016-07-31T09:13:36Z</time>
      </trkpt>
      <trkpt lat="42.44269" lon="0.0604">
        <ele>742.6</ele>
        <time>2016-07-31T09:13:38Z</time>
      </trkpt>
      <trkpt lat="42.44265" lon="0.06037">
        <ele>743.2</ele>
        <time>2016-07-31T09:13:40Z</time>
      </trkpt>
      <trkpt lat="42.44261" lon="0.06035">
        <ele>743.5</ele>
        <time>2016-07-31T09:13:42Z</time>
      </trkpt>
      <trkpt lat="42.44256" lon="0.06034">
        <ele>743.7</ele>
        <time>2016-07-31T09:13:44Z</time>
      </trkpt>
      <trkpt lat="42.44252" lon="0.06033">
        <ele>743.8</ele>
        <time>2016-07-31T09:13:46Z</time>
      </trkpt>
      <trkpt lat="42.44247" lon="0.06033">
        <ele>743.6</ele>
        <time>2016-07-31T09:13:48Z</time>
      </trkpt>
      <trkpt lat="42.44243" lon="0.06034">
        <ele>742.8</ele>
        <time>2016-07-31T09:13:50Z</time>
      </trkpt>
      <trkpt lat="42.44239" lon="0.06037">
        <ele>741.8</ele>
        <time>2016-07-31T09:13:52Z</time>
      </trkpt>
      <trkpt lat="42.44235" lon="0.0604">
        <ele>740.7</ele>
        <time>2016-07-31T09:13:54Z</time>
      </trkpt>
      <trkpt lat="42.44231" lon="0.06043">
        <ele>739.7</ele>
        <time>2016-07-31T09:13:56Z</time>
      </trkpt>
      <trkpt lat="42.44227" lon="0.06045">
        <ele>738.8</ele>
        <time>2016-07-31T09:13:58Z</time>
      </trkpt>
      <trkpt lat="42.44223" lon="0.06046">
        <ele>738.3</ele>
        <time>2016-07-31T09:14:00Z</time>
      </trkpt>
      <trkpt lat="42.44219" lon="0.06046">
        <ele>738.4</ele>
        <time>2016-07-31T09:14:02Z</time>
      </trkpt>
      <trkpt lat="42.44216" lon="0.06045">
        <ele>738.5</ele>
        <time>2016-07-31T09:14:04Z</time>
      </trkpt>
      <trkpt lat="42.44212" lon="0.06044">
        <ele>738.6</ele>
        <time>2016-07-31T09:14:06Z</time>
      </trkpt>
      <trkpt lat="42.44208" lon="0.06043">
        <ele>738.6</ele>
        <time>2016-07-31T09:14:08Z</time>
      </trkpt>
      <trkpt lat="42.44204" lon="0.06042">
        <ele>738.6</ele>
        <time>2016-07-31T09:14:10Z</time>
      </trkpt>
      <trkpt lat="42.442" lon="0.0604">
        <ele>738.6</ele>
        <time>2016-07-31T09:14:12Z</time>
      </trkpt>
      <trkpt lat="42.44196" lon="0.06038">
        <ele>738.6</ele>
        <time>2016-07-31T09:14:14Z</time>
      </trkpt>
      <trkpt lat="42.44192" lon="0.06037">
        <ele>738.7</ele>
        <time>2016-07-31T09:14:16Z</time>
      </trkpt>
      <trkpt lat="42.44189" lon="0.06035">
        <ele>738.7</ele>
        <time>2016-07-31T09:14:18Z</time>
      </trkpt>
      <trkpt lat="42.44185" lon="0.06034">
        <ele>738.8</ele>
        <time>2016-07-31T09:14:20Z</time>
      </trkpt>
      <trkpt lat="42.44181" lon="0.06032">
        <ele>738.8</ele>
        <time>2016-07-31T09:14:22Z</time>
      </trkpt>
      <trkpt lat="42.44178" lon="0.0603">
        <ele>739</ele>
        <time>2016-07-31T09:14:24Z</time>
      </trkpt>
      <trkpt lat="42.44174" lon="0.06028">
        <ele>739.4</ele>
        <time>2016-07-31T09:14:26Z</time>
      </trkpt>
      <trkpt lat="42.44171" lon="0.06025">
        <ele>739.7</ele>
        <time>2016-07-31T09:14:28Z</time>
      </trkpt>
      <trkpt lat="42.44167" lon="0.06022">
        <ele>740.2</ele>
        <time>2016-07-31T09:14:30Z</time>
      </trkpt>
      <trkpt lat="42.44164" lon="0.06019">
        <ele>740.8</ele>
        <time>2016-07-31T09:14:32Z</time>
      </trkpt>
      <trkpt lat="42.4416" lon="0.06015">
        <ele>741.4</ele>
        <time>2016-07-31T09:14:34Z</time>
      </trkpt>
      <trkpt lat="42.44157" lon="0.06011">
        <ele>742.2</ele>
        <time>2016-07-31T09:14:36Z</time>
      </trkpt>
      <trkpt lat="42.44154" lon="0.06007">
        <ele>743.1</ele>
        <time>2016-07-31T09:14:38Z</time>
      </trkpt>
      <trkpt lat="42.4415" lon="0.06003">
        <ele>743.9</ele>
        <time>2016-07-31T09:14:40Z</time>
      </trkpt>
      <trkpt lat="42.44146" lon="0.06">
        <ele>744.5</ele>
        <time>2016-07-31T09:14:42Z</time>
      </trkpt>
      <trkpt lat="42.44143" lon="0.05996">
        <ele>745</ele>
        <time>2016-07-31T09:14:44Z</time>
      </trkpt>
      <trkpt lat="42.44139" lon="0.05993">
        <ele>745.7</ele>
        <time>2016-07-31T09:14:46Z</time>
      </trkpt>
      <trkpt lat="42.44135" lon="0.05989">
        <ele>746.3</ele>
        <time>2016-07-31T09:14:48Z</time>
      </trkpt>
      <trkpt lat="42.44131" lon="0.05986">
        <ele>746.7</ele>
        <time>2016-07-31T09:14:50Z</time>
      </trkpt>
      <trkpt lat="42.44127" lon="0.05983">
        <ele>747.2</ele>
        <time>2016-07-31T09:14:52Z</time>
      </trkpt>
      <trkpt lat="42.44123" lon="0.0598">
        <ele>747.7</ele>
        <time>2016-07-31T09:14:54Z</time>
      </trkpt>
      <trkpt lat="42.44118" lon="0.05978">
        <ele>748.3</ele>
        <time>2016-07-31T09:14:56Z</time>
      </trkpt>
      <trkpt lat="42.44114" lon="0.05976">
        <ele>749</ele>
        <time>2016-07-31T09:14:58Z</time>
      </trkpt>
      <trkpt lat="42.44109" lon="0.05975">
        <ele>749.6</ele>
        <time>2016-07-31T09:15:00Z</time>
      </trkpt>
      <trkpt lat="42.44105" lon="0.05972">
        <ele>750.2</ele>
        <time>2016-07-31T09:15:02Z</time>
      </trkpt>
      <trkpt lat="42.441" lon="0.0597">
        <ele>750.8</ele>
        <time>2016-07-31T09:15:04Z</time>
      </trkpt>
      <trkpt lat="42.44096" lon="0.05968">
        <ele>751.4</ele>
        <time>2016-07-31T09:15:06Z</time>
      </trkpt>
      <trkpt lat="42.44092" lon="0.05966">
        <ele>752.1</ele>
        <time>2016-07-31T09:15:08Z</time>
      </trkpt>
      <trkpt lat="42.44088" lon="0.05963">
        <ele>752.8</ele>
        <time>2016-07-31T09:15:10Z</time>
      </trkpt>
      <trkpt lat="42.44084" lon="0.0596">
        <ele>753.5</ele>
        <time>2016-07-31T09:15:12Z</time>
      </trkpt>
      <trkpt lat="42.44081" lon="0.05958">
        <ele>754.1</ele>
        <time>2016-07-31T09:15:14Z</time>
      </trkpt>
      <trkpt lat="42.44077" lon="0.05955">
        <ele>754.6</ele>
        <time>2016-07-31T09:15:16Z</time>
      </trkpt>
      <trkpt lat="42.44073" lon="0.05953">
        <ele>755</ele>
        <time>2016-07-31T09:15:18Z</time>
      </trkpt>
      <trkpt lat="42.4407" lon="0.0595">
        <ele>755.5</ele>
        <time>2016-07-31T09:15:20Z</time>
      </trkpt>
      <trkpt lat="42.44066" lon="0.05948">
        <ele>755.9</ele>
        <time>2016-07-31T09:15:22Z</time>
      </trkpt>
      <trkpt lat="42.44063" lon="0.05946">
        <ele>756.3</ele>
        <time>2016-07-31T09:15:24Z</time>
      </trkpt>
      <trkpt lat="42.4406" lon="0.05944">
        <ele>756.7</ele>
        <time>2016-07-31T09:15:26Z</time>
      </trkpt>
      <trkpt lat="42.44057" lon="0.05941">
        <ele>757.1</ele>
        <time>2016-07-31T09:15:28Z</time>
      </trkpt>
      <trkpt lat="42.44054" lon="0.05939">
        <ele>757.5</ele>
        <time>2016-07-31T09:15:30Z</time>
      </trkpt>
      <trkpt lat="42.4405" lon="0.05937">
        <ele>757.7</ele>
        <time>2016-07-31T09:15:32Z</time>
      </trkpt>
      <trkpt lat="42.44046" lon="0.05936">
        <ele>757.8</ele>
        <time>2016-07-31T09:15:34Z</time>
      </trkpt>
      <trkpt lat="42.44042" lon="0.05935">
        <ele>757.9</ele>
        <time>2016-07-31T09:15:36Z</time>
      </trkpt>
      <trkpt lat="42.44038" lon="0.05934">
        <ele>758.1</ele>
        <time>2016-07-31T09:15:38Z</time>
      </trkpt>
      <trkpt lat="42.44034" lon="0.05933">
        <ele>758.2</ele>
        <time>2016-07-31T09:15:40Z</time>
      </trkpt>
      <trkpt lat="42.44031" lon="0.05931">
        <ele>758.4</ele>
        <time>2016-07-31T09:15:42Z</time>
      </trkpt>
      <trkpt lat="42.44028" lon="0.0593">
        <ele>758.5</ele>
        <time>2016-07-31T09:15:44Z</time>
      </trkpt>
      <trkpt lat="42.44025" lon="0.0593">
        <ele>758.6</ele>
        <time>2016-07-31T09:15:46Z</time>
      </trkpt>
      <trkpt lat="42.44021" lon="0.05929">
        <ele>758.6</ele>
        <time>2016-07-31T09:15:48Z</time>
      </trkpt>
      <trkpt lat="42.44018" lon="0.05929">
        <ele>758.6</ele>
        <time>2016-07-31T09:15:50Z</time>
      </trkpt>
      <trkpt lat="42.44015" lon="0.05928">
        <ele>758.7</ele>
        <time>2016-07-31T09:15:52Z</time>
      </trkpt>
      <trkpt lat="42.44011" lon="0.05927">
        <ele>758.8</ele>
        <time>2016-07-31T09:15:54Z</time>
      </trkpt>
      <trkpt lat="42.44008" lon="0.05926">
        <ele>759</ele>
        <time>2016-07-31T09:15:56Z</time>
      </trkpt>
      <trkpt lat="42.44005" lon="0.05924">
        <ele>759.2</ele>
        <time>2016-07-31T09:15:58Z</time>
      </trkpt>
      <trkpt lat="42.44002" lon="0.05922">
        <ele>759.4</ele>
        <time>2016-07-31T09:16:00Z</time>
      </trkpt>
      <trkpt lat="42.44" lon="0.05922">
        <ele>759.4</ele>
        <time>2016-07-31T09:16:02Z</time>
      </trkpt>
      <trkpt lat="42.43997" lon="0.05921">
        <ele>759.6</ele>
        <time>2016-07-31T09:16:04Z</time>
      </trkpt>
      <trkpt lat="42.43994" lon="0.0592">
        <ele>759.7</ele>
        <time>2016-07-31T09:16:06Z</time>
      </trkpt>
      <trkpt lat="42.43991" lon="0.05919">
        <ele>759.8</ele>
        <time>2016-07-31T09:16:08Z</time>
      </trkpt>
      <trkpt lat="42.43988" lon="0.05917">
        <ele>760</ele>
        <time>2016-07-31T09:16:10Z</time>
      </trkpt>
      <trkpt lat="42.43985" lon="0.05916">
        <ele>760.1</ele>
        <time>2016-07-31T09:16:12Z</time>
      </trkpt>
      <trkpt lat="42.43981" lon="0.05915">
        <ele>760.2</ele>
        <time>2016-07-31T09:16:14Z</time>
      </trkpt>
      <trkpt lat="42.43978" lon="0.05913">
        <ele>760.4</ele>
        <time>2016-07-31T09:16:16Z</time>
      </trkpt>
      <trkpt lat="42.43975" lon="0.05912">
        <ele>760.5</ele>
        <time>2016-07-31T09:16:18Z</time>
      </trkpt>
      <trkpt lat="42.43971" lon="0.05911">
        <ele>760.7</ele>
        <time>2016-07-31T09:16:20Z</time>
      </trkpt>
      <trkpt lat="42.43968" lon="0.0591">
        <ele>760.8</ele>
        <time>2016-07-31T09:16:22Z</time>
      </trkpt>
      <trkpt lat="42.43965" lon="0.05909">
        <ele>760.9</ele>
        <time>2016-07-31T09:16:24Z</time>
      </trkpt>
      <trkpt lat="42.43961" lon="0.05908">
        <ele>760.9</ele>
        <time>2016-07-31T09:16:26Z</time>
      </trkpt>
      <trkpt lat="42.43958" lon="0.05908">
        <ele>760.8</ele>
        <time>2016-07-31T09:16:28Z</time>
      </trkpt>
      <trkpt lat="42.43955" lon="0.05908">
        <ele>760.7</ele>
        <time>2016-07-31T09:16:30Z</time>
      </trkpt>
      <trkpt lat="42.43951" lon="0.05907">
        <ele>760.7</ele>
        <time>2016-07-31T09:16:32Z</time>
      </trkpt>
      <trkpt lat="42.43948" lon="0.05906">
        <ele>760.6</ele>
        <time>2016-07-31T09:16:34Z</time>
      </trkpt>
      <trkpt lat="42.43944" lon="0.05905">
        <ele>760.6</ele>
        <time>2016-07-31T09:16:36Z</time>
      </trkpt>
      <trkpt lat="42.4394" lon="0.05904">
        <ele>760.6</ele>
        <time>2016-07-31T09:16:38Z</time>
      </trkpt>
      <trkpt lat="42.43936" lon="0.05903">
        <ele>760.6</ele>
        <time>2016-07-31T09:16:40Z</time>
      </trkpt>
      <trkpt lat="42.43932" lon="0.05901">
        <ele>760.7</ele>
        <time>2016-07-31T09:16:42Z</time>
      </trkpt>
      <trkpt lat="42.43928" lon="0.059">
        <ele>760.8</ele>
        <time>2016-07-31T09:16:44Z</time>
      </trkpt>
      <trkpt lat="42.43924" lon="0.05899">
        <ele>760.8</ele>
        <time>2016-07-31T09:16:46Z</time>
      </trkpt>
      <trkpt lat="42.4392" lon="0.05896">
        <ele>761.2</ele>
        <time>2016-07-31T09:16:48Z</time>
      </trkpt>
      <trkpt lat="42.43918" lon="0.05892">
        <ele>761.9</ele>
        <time>2016-07-31T09:16:50Z</time>
      </trkpt>
      <trkpt lat="42.43917" lon="0.05887">
        <ele>763</ele>
        <time>2016-07-31T09:16:52Z</time>
      </trkpt>
      <trkpt lat="42.43918" lon="0.05882">
        <ele>764.1</ele>
        <time>2016-07-31T09:16:54Z</time>
      </trkpt>
      <trkpt lat="42.4392" lon="0.05878">
        <ele>764.9</ele>
        <time>2016-07-31T09:16:56Z</time>
      </trkpt>
      <trkpt lat="42.43924" lon="0.05875">
        <ele>765.5</ele>
        <time>2016-07-31T09:16:58Z</time>
      </trkpt>
      <trkpt lat="42.43928" lon="0.05874">
        <ele>765.9</ele>
        <time>2016-07-31T09:17:00Z</time>
      </trkpt>
      <trkpt lat="42.43932" lon="0.05873">
        <ele>766.1</ele>
        <time>2016-07-31T09:17:02Z</time>
      </trkpt>
      <trkpt lat="42.43936" lon="0.05872">
        <ele>766.4</ele>
        <time>2016-07-31T09:17:04Z</time>
      </trkpt>
      <trkpt lat="42.4394" lon="0.05871">
        <ele>766.6</ele>
        <time>2016-07-31T09:17:06Z</time>
      </trkpt>
      <trkpt lat="42.43944" lon="0.0587">
        <ele>766.9</ele>
        <time>2016-07-31T09:17:08Z</time>
      </trkpt>
      <trkpt lat="42.43948" lon="0.05868">
        <ele>767.3</ele>
        <time>2016-07-31T09:17:10Z</time>
      </trkpt>
      <trkpt lat="42.43951" lon="0.05866">
        <ele>767.7</ele>
        <time>2016-07-31T09:17:12Z</time>
      </trkpt>
      <trkpt lat="42.43955" lon="0.05865">
        <ele>768.1</ele>
        <time>2016-07-31T09:17:14Z</time>
      </trkpt>
      <trkpt lat="42.43958" lon="0.05863">
        <ele>768.5</ele>
        <time>2016-07-31T09:17:16Z</time>
      </trkpt>
      <trkpt lat="42.43962" lon="0.05861">
        <ele>768.9</ele>
        <time>2016-07-31T09:17:18Z</time>
      </trkpt>
      <trkpt lat="42.43965" lon="0.05859">
        <ele>769.3</ele>
        <time>2016-07-31T09:17:20Z</time>
      </trkpt>
      <trkpt lat="42.43968" lon="0.05858">
        <ele>769.7</ele>
        <time>2016-07-31T09:17:22Z</time>
      </trkpt>
      <trkpt lat="42.43972" lon="0.05856">
        <ele>770.2</ele>
        <time>2016-07-31T09:17:24Z</time>
      </trkpt>
      <trkpt lat="42.43975" lon="0.05854">
        <ele>770.6</ele>
        <time>2016-07-31T09:17:26Z</time>
      </trkpt>
      <trkpt lat="42.43978" lon="0.05853">
        <ele>770.9</ele>
        <time>2016-07-31T09:17:28Z</time>
      </trkpt>
      <trkpt lat="42.43981" lon="0.05851">
        <ele>771.2</ele>
        <time>2016-07-31T09:17:30Z</time>
      </trkpt>
      <trkpt lat="42.43985" lon="0.0585">
        <ele>771.6</ele>
        <time>2016-07-31T09:17:32Z</time>
      </trkpt>
      <trkpt lat="42.43989" lon="0.05848">
        <ele>772.1</ele>
        <time>2016-07-31T09:17:34Z</time>
      </trkpt>
      <trkpt lat="42.43993" lon="0.05846">
        <ele>772.5</ele>
        <time>2016-07-31T09:17:36Z</time>
      </trkpt>
      <trkpt lat="42.43996" lon="0.05844">
        <ele>772.8</ele>
        <time>2016-07-31T09:17:38Z</time>
      </trkpt>
      <trkpt lat="42.44" lon="0.05843">
        <ele>773.2</ele>
        <time>2016-07-31T09:17:40Z</time>
      </trkpt>
      <trkpt lat="42.44005" lon="0.05841">
        <ele>773.6</ele>
        <time>2016-07-31T09:17:42Z</time>
      </trkpt>
      <trkpt lat="42.44009" lon="0.05839">
        <ele>774</ele>
        <time>2016-07-31T09:17:44Z</time>
      </trkpt>
      <trkpt lat="42.44013" lon="0.05838">
        <ele>774.2</ele>
        <time>2016-07-31T09:17:46Z</time>
      </trkpt>
      <trkpt lat="42.44016" lon="0.05838">
        <ele>774.4</ele>
        <time>2016-07-31T09:17:48Z</time>
      </trkpt>
      <trkpt lat="42.4402" lon="0.05837">
        <ele>774.5</ele>
        <time>2016-07-31T09:17:50Z</time>
      </trkpt>
      <trkpt lat="42.44024" lon="0.05836">
        <ele>774.8</ele>
        <time>2016-07-31T09:17:52Z</time>
      </trkpt>
      <trkpt lat="42.44027" lon="0.05835">
        <ele>775.1</ele>
        <time>2016-07-31T09:17:54Z</time>
      </trkpt>
      <trkpt lat="42.4403" lon="0.05833">
        <ele>775.4</ele>
        <time>2016-07-31T09:17:56Z</time>
      </trkpt>
      <trkpt lat="42.44034" lon="0.05834">
        <ele>775.4</ele>
        <time>2016-07-31T09:17:58Z</time>
      </trkpt>
      <trkpt lat="42.44038" lon="0.05834">
        <ele>775.4</ele>
        <time>2016-07-31T09:18:00Z</time>
      </trkpt>
      <trkpt lat="42.44041" lon="0.05834">
        <ele>775.4</ele>
        <time>2016-07-31T09:18:02Z</time>
      </trkpt>
      <trkpt lat="42.44045" lon="0.05835">
        <ele>775.5</ele>
        <time>2016-07-31T09:18:04Z</time>
      </trkpt>
      <trkpt lat="42.44049" lon="0.05836">
        <ele>775.6</ele>
        <time>2016-07-31T09:18:06Z</time>
      </trkpt>
      <trkpt lat="42.44052" lon="0.05837">
        <ele>775.7</ele>
        <time>2016-07-31T09:18:08Z</time>
      </trkpt>
      <trkpt lat="42.44056" lon="0.05838">
        <ele>775.8</ele>
        <time>2016-07-31T09:18:10Z</time>
      </trkpt>
      <trkpt lat="42.4406" lon="0.05839">
        <ele>775.9</ele>
        <time>2016-07-31T09:18:12Z</time>
      </trkpt>
      <trkpt lat="42.44063" lon="0.05838">
        <ele>776.5</ele>
        <time>2016-07-31T09:18:14Z</time>
      </trkpt>
      <trkpt lat="42.44065" lon="0.05832">
        <ele>777.7</ele>
        <time>2016-07-31T09:18:16Z</time>
      </trkpt>
      <trkpt lat="42.44065" lon="0.05826">
        <ele>778.8</ele>
        <time>2016-07-31T09:18:18Z</time>
      </trkpt>
      <trkpt lat="42.44061" lon="0.05821">
        <ele>779.4</ele>
        <time>2016-07-31T09:18:20Z</time>
      </trkpt>
      <trkpt lat="42.44058" lon="0.05818">
        <ele>779.7</ele>
        <time>2016-07-31T09:18:22Z</time>
      </trkpt>
      <trkpt lat="42.44054" lon="0.05816">
        <ele>779.8</ele>
        <time>2016-07-31T09:18:24Z</time>
      </trkpt>
      <trkpt lat="42.44051" lon="0.05815">
        <ele>779.7</ele>
        <time>2016-07-31T09:18:26Z</time>
      </trkpt>
      <trkpt lat="42.44047" lon="0.05814">
        <ele>779.5</ele>
        <time>2016-07-31T09:18:28Z</time>
      </trkpt>
      <trkpt lat="42.44044" lon="0.05813">
        <ele>779.4</ele>
        <time>2016-07-31T09:18:30Z</time>
      </trkpt>
      <trkpt lat="42.4404" lon="0.05811">
        <ele>779.5</ele>
        <time>2016-07-31T09:18:32Z</time>
      </trkpt>
      <trkpt lat="42.44037" lon="0.05809">
        <ele>779.9</ele>
        <time>2016-07-31T09:18:34Z</time>
      </trkpt>
      <trkpt lat="42.44034" lon="0.05807">
        <ele>780.2</ele>
        <time>2016-07-31T09:18:36Z</time>
      </trkpt>
      <trkpt lat="42.44031" lon="0.05805">
        <ele>780.5</ele>
        <time>2016-07-31T09:18:38Z</time>
      </trkpt>
      <trkpt lat="42.44028" lon="0.05804">
        <ele>780.8</ele>
        <time>2016-07-31T09:18:40Z</time>
      </trkpt>
      <trkpt lat="42.44025" lon="0.05802">
        <ele>781.1</ele>
        <time>2016-07-31T09:18:42Z</time>
      </trkpt>
      <trkpt lat="42.44022" lon="0.058">
        <ele>781.4</ele>
        <time>2016-07-31T09:18:44Z</time>
      </trkpt>
      <trkpt lat="42.44019" lon="0.05799">
        <ele>781.7</ele>
        <time>2016-07-31T09:18:46Z</time>
      </trkpt>
      <trkpt lat="42.44016" lon="0.05796">
        <ele>782.1</ele>
        <time>2016-07-31T09:18:48Z</time>
      </trkpt>
      <trkpt lat="42.44013" lon="0.05794">
        <ele>782.6</ele>
        <time>2016-07-31T09:18:50Z</time>
      </trkpt>
      <trkpt lat="42.4401" lon="0.05791">
        <ele>783.3</ele>
        <time>2016-07-31T09:18:52Z</time>
      </trkpt>
      <trkpt lat="42.44008" lon="0.05787">
        <ele>784.2</ele>
        <time>2016-07-31T09:18:54Z</time>
      </trkpt>
      <trkpt lat="42.44005" lon="0.05784">
        <ele>785</ele>
        <time>2016-07-31T09:18:56Z</time>
      </trkpt>
      <trkpt lat="42.44002" lon="0.05782">
        <ele>785.6</ele>
        <time>2016-07-31T09:18:58Z</time>
      </trkpt>
      <trkpt lat="42.43998" lon="0.05779">
        <ele>786.1</ele>
        <time>2016-07-31T09:19:00Z</time>
      </trkpt>
      <trkpt lat="42.43995" lon="0.05776">
        <ele>787</ele>
        <time>2016-07-31T09:19:02Z</time>
      </trkpt>
      <trkpt lat="42.43992" lon="0.05772">
        <ele>788</ele>
        <time>2016-07-31T09:19:04Z</time>
      </trkpt>
      <trkpt lat="42.43989" lon="0.05768">
        <ele>788.9</ele>
        <time>2016-07-31T09:19:06Z</time>
      </trkpt>
      <trkpt lat="42.43986" lon="0.05764">
        <ele>789.8</ele>
        <time>2016-07-31T09:19:08Z</time>
      </trkpt>
      <trkpt lat="42.43984" lon="0.0576">
        <ele>790.7</ele>
        <time>2016-07-31T09:19:10Z</time>
      </trkpt>
      <trkpt lat="42.43981" lon="0.05757">
        <ele>791.6</ele>
        <time>2016-07-31T09:19:12Z</time>
      </trkpt>
      <trkpt lat="42.43978" lon="0.05753">
        <ele>792.3</ele>
        <time>2016-07-31T09:19:14Z</time>
      </trkpt>
      <trkpt lat="42.43975" lon="0.0575">
        <ele>793</ele>
        <time>2016-07-31T09:19:16Z</time>
      </trkpt>
      <trkpt lat="42.43971" lon="0.05748">
        <ele>793.4</ele>
        <time>2016-07-31T09:19:18Z</time>
      </trkpt>
      <trkpt lat="42.43968" lon="0.05746">
        <ele>793.7</ele>
        <time>2016-07-31T09:19:20Z</time>
      </trkpt>
      <trkpt lat="42.43964" lon="0.05745">
        <ele>793.9</ele>
        <time>2016-07-31T09:19:22Z</time>
      </trkpt>
      <trkpt lat="42.4396" lon="0.05744">
        <ele>793.9</ele>
        <time>2016-07-31T09:19:24Z</time>
      </trkpt>
      <trkpt lat="42.43957" lon="0.05744">
        <ele>793.9</ele>
        <time>2016-07-31T09:19:26Z</time>
      </trkpt>
      <trkpt lat="42.43954" lon="0.05744">
        <ele>793.7</ele>
        <time>2016-07-31T09:19:28Z</time>
      </trkpt>
      <trkpt lat="42.4395" lon="0.05744">
        <ele>793.5</ele>
        <time>2016-07-31T09:19:30Z</time>
      </trkpt>
      <trkpt lat="42.43946" lon="0.05744">
        <ele>793.4</ele>
        <time>2016-07-31T09:19:32Z</time>
      </trkpt>
      <trkpt lat="42.43942" lon="0.05743">
        <ele>793.3</ele>
        <time>2016-07-31T09:19:34Z</time>
      </trkpt>
      <trkpt lat="42.43939" lon="0.05742">
        <ele>793.4</ele>
        <time>2016-07-31T09:19:36Z</time>
      </trkpt>
      <trkpt lat="42.43935" lon="0.05741">
        <ele>793.4</ele>
        <time>2016-07-31T09:19:38Z</time>
      </trkpt>
      <trkpt lat="42.43931" lon="0.0574">
        <ele>793.4</ele>
        <time>2016-07-31T09:19:40Z</time>
      </trkpt>
      <trkpt lat="42.43926" lon="0.05739">
        <ele>793.3</ele>
        <time>2016-07-31T09:19:42Z</time>
      </trkpt>
      <trkpt lat="42.43922" lon="0.05739">
        <ele>793.2</ele>
        <time>2016-07-31T09:19:44Z</time>
      </trkpt>
      <trkpt lat="42.43918" lon="0.05738">
        <ele>793</ele>
        <time>2016-07-31T09:19:46Z</time>
      </trkpt>
      <trkpt lat="42.43914" lon="0.05738">
        <ele>792.8</ele>
        <time>2016-07-31T09:19:48Z</time>
      </trkpt>
      <trkpt lat="42.43909" lon="0.05738">
        <ele>792.6</ele>
        <time>2016-07-31T09:19:50Z</time>
      </trkpt>
      <trkpt lat="42.43905" lon="0.05738">
        <ele>792.4</ele>
        <time>2016-07-31T09:19:52Z</time>
      </trkpt>
      <trkpt lat="42.43901" lon="0.05737">
        <ele>792.2</ele>
        <time>2016-07-31T09:19:54Z</time>
      </trkpt>
      <trkpt lat="42.43897" lon="0.05736">
        <ele>792.2</ele>
        <time>2016-07-31T09:19:56Z</time>
      </trkpt>
      <trkpt lat="42.43893" lon="0.05735">
        <ele>792.1</ele>
        <time>2016-07-31T09:19:58Z</time>
      </trkpt>
      <trkpt lat="42.43889" lon="0.05734">
        <ele>792.1</ele>
        <time>2016-07-31T09:20:00Z</time>
      </trkpt>
      <trkpt lat="42.43886" lon="0.05733">
        <ele>792.1</ele>
        <time>2016-07-31T09:20:02Z</time>
      </trkpt>
      <trkpt lat="42.43882" lon="0.05731">
        <ele>792.1</ele>
        <time>2016-07-31T09:20:04Z</time>
      </trkpt>
      <trkpt lat="42.43879" lon="0.0573">
        <ele>792.2</ele>
        <time>2016-07-31T09:20:06Z</time>
      </trkpt>
      <trkpt lat="42.43875" lon="0.05728">
        <ele>792.3</ele>
        <time>2016-07-31T09:20:08Z</time>
      </trkpt>
      <trkpt lat="42.43872" lon="0.05726">
        <ele>792.4</ele>
        <time>2016-07-31T09:20:10Z</time>
      </trkpt>
      <trkpt lat="42.43869" lon="0.05724">
        <ele>792.5</ele>
        <time>2016-07-31T09:20:12Z</time>
      </trkpt>
      <trkpt lat="42.43865" lon="0.05722">
        <ele>792.6</ele>
        <time>2016-07-31T09:20:14Z</time>
      </trkpt>
      <trkpt lat="42.43862" lon="0.0572">
        <ele>792.6</ele>
        <time>2016-07-31T09:20:16Z</time>
      </trkpt>
      <trkpt lat="42.43858" lon="0.05719">
        <ele>792.6</ele>
        <time>2016-07-31T09:20:18Z</time>
      </trkpt>
      <trkpt lat="42.43855" lon="0.05719">
        <ele>792.5</ele>
        <time>2016-07-31T09:20:20Z</time>
      </trkpt>
      <trkpt lat="42.43851" lon="0.05718">
        <ele>792.5</ele>
        <time>2016-07-31T09:20:22Z</time>
      </trkpt>
      <trkpt lat="42.43848" lon="0.05716">
        <ele>792.7</ele>
        <time>2016-07-31T09:20:24Z</time>
      </trkpt>
      <trkpt lat="42.43845" lon="0.05713">
        <ele>792.8</ele>
        <time>2016-07-31T09:20:26Z</time>
      </trkpt>
      <trkpt lat="42.43841" lon="0.05712">
        <ele>792.9</ele>
        <time>2016-07-31T09:20:28Z</time>
      </trkpt>
      <trkpt lat="42.43838" lon="0.0571">
        <ele>793</ele>
        <time>2016-07-31T09:20:30Z</time>
      </trkpt>
      <trkpt lat="42.43835" lon="0.05708">
        <ele>793.1</ele>
        <time>2016-07-31T09:20:32Z</time>
      </trkpt>
      <trkpt lat="42.43832" lon="0.05707">
        <ele>793.3</ele>
        <time>2016-07-31T09:20:34Z</time>
      </trkpt>
      <trkpt lat="42.43829" lon="0.05705">
        <ele>793.5</ele>
        <time>2016-07-31T09:20:36Z</time>
      </trkpt>
      <trkpt lat="42.43826" lon="0.05704">
        <ele>793.6</ele>
        <time>2016-07-31T09:20:38Z</time>
      </trkpt>
      <trkpt lat="42.43823" lon="0.05703">
        <ele>793.7</ele>
        <time>2016-07-31T09:20:40Z</time>
      </trkpt>
      <trkpt lat="42.4382" lon="0.05701">
        <ele>794.1</ele>
        <time>2016-07-31T09:20:42Z</time>
      </trkpt>
      <trkpt lat="42.43818" lon="0.05697">
        <ele>794.8</ele>
        <time>2016-07-31T09:20:44Z</time>
      </trkpt>
      <trkpt lat="42.43817" lon="0.05694">
        <ele>795.5</ele>
        <time>2016-07-31T09:20:46Z</time>
      </trkpt>
      <trkpt lat="42.43815" lon="0.0569">
        <ele>796.2</ele>
        <time>2016-07-31T09:20:48Z</time>
      </trkpt>
      <trkpt lat="42.43814" lon="0.05686">
        <ele>797</ele>
        <time>2016-07-31T09:20:50Z</time>
      </trkpt>
      <trkpt lat="42.43814" lon="0.05682">
        <ele>797.8</ele>
        <time>2016-07-31T09:20:52Z</time>
      </trkpt>
      <trkpt lat="42.43814" lon="0.05679">
        <ele>798.7</ele>
        <time>2016-07-31T09:20:54Z</time>
      </trkpt>
      <trkpt lat="42.43815" lon="0.05675">
        <ele>799.7</ele>
        <time>2016-07-31T09:20:56Z</time>
      </trkpt>
      <trkpt lat="42.43817" lon="0.05671">
        <ele>800.6</ele>
        <time>2016-07-31T09:20:58Z</time>
      </trkpt>
      <trkpt lat="42.43818" lon="0.05667">
        <ele>801.6</ele>
        <time>2016-07-31T09:21:00Z</time>
      </trkpt>
      <trkpt lat="42.43818" lon="0.05663">
        <ele>802.4</ele>
        <time>2016-07-31T09:21:02Z</time>
      </trkpt>
      <trkpt lat="42.43818" lon="0.05659">
        <ele>803.4</ele>
        <time>2016-07-31T09:21:04Z</time>
      </trkpt>
      <trkpt lat="42.43818" lon="0.05654">
        <ele>804.4</ele>
        <time>2016-07-31T09:21:06Z</time>
      </trkpt>
      <trkpt lat="42.43817" lon="0.0565">
        <ele>805.1</ele>
        <time>2016-07-31T09:21:08Z</time>
      </trkpt>
      <trkpt lat="42.43815" lon="0.05647">
        <ele>805.7</ele>
        <time>2016-07-31T09:21:10Z</time>
      </trkpt>
      <trkpt lat="42.43812" lon="0.05644">
        <ele>806.2</ele>
        <time>2016-07-31T09:21:13Z</time>
      </trkpt>
      <trkpt lat="42.43809" lon="0.05643">
        <ele>806.3</ele>
        <time>2016-07-31T09:21:15Z</time>
      </trkpt>
      <trkpt lat="42.43806" lon="0.05642">
        <ele>806.3</ele>
        <time>2016-07-31T09:21:17Z</time>
      </trkpt>
      <trkpt lat="42.43803" lon="0.0564">
        <ele>806.5</ele>
        <time>2016-07-31T09:21:19Z</time>
      </trkpt>
      <trkpt lat="42.438" lon="0.05638">
        <ele>806.7</ele>
        <time>2016-07-31T09:21:21Z</time>
      </trkpt>
      <trkpt lat="42.43796" lon="0.05637">
        <ele>806.8</ele>
        <time>2016-07-31T09:21:23Z</time>
      </trkpt>
      <trkpt lat="42.43793" lon="0.05635">
        <ele>807</ele>
        <time>2016-07-31T09:21:25Z</time>
      </trkpt>
      <trkpt lat="42.43789" lon="0.05633">
        <ele>807.4</ele>
        <time>2016-07-31T09:21:27Z</time>
      </trkpt>
      <trkpt lat="42.43786" lon="0.05631">
        <ele>807.7</ele>
        <time>2016-07-31T09:21:29Z</time>
      </trkpt>
      <trkpt lat="42.43782" lon="0.05629">
        <ele>808</ele>
        <time>2016-07-31T09:21:31Z</time>
      </trkpt>
      <trkpt lat="42.43778" lon="0.05627">
        <ele>808.4</ele>
        <time>2016-07-31T09:21:33Z</time>
      </trkpt>
      <trkpt lat="42.43775" lon="0.05625">
        <ele>808.8</ele>
        <time>2016-07-31T09:21:35Z</time>
      </trkpt>
      <trkpt lat="42.43771" lon="0.05624">
        <ele>808.9</ele>
        <time>2016-07-31T09:21:37Z</time>
      </trkpt>
      <trkpt lat="42.43767" lon="0.05623">
        <ele>809.1</ele>
        <time>2016-07-31T09:21:39Z</time>
      </trkpt>
      <trkpt lat="42.43763" lon="0.05623">
        <ele>809.2</ele>
        <time>2016-07-31T09:21:41Z</time>
      </trkpt>
      <trkpt lat="42.43759" lon="0.05621">
        <ele>809.6</ele>
        <time>2016-07-31T09:21:43Z</time>
      </trkpt>
      <trkpt lat="42.43756" lon="0.05618">
        <ele>810</ele>
        <time>2016-07-31T09:21:45Z</time>
      </trkpt>
      <trkpt lat="42.43752" lon="0.05617">
        <ele>810.3</ele>
        <time>2016-07-31T09:21:47Z</time>
      </trkpt>
      <trkpt lat="42.43748" lon="0.05615">
        <ele>810.6</ele>
        <time>2016-07-31T09:21:49Z</time>
      </trkpt>
      <trkpt lat="42.43745" lon="0.05614">
        <ele>810.9</ele>
        <time>2016-07-31T09:21:51Z</time>
      </trkpt>
      <trkpt lat="42.43741" lon="0.05613">
        <ele>811.1</ele>
        <time>2016-07-31T09:21:53Z</time>
      </trkpt>
      <trkpt lat="42.43738" lon="0.05611">
        <ele>811.4</ele>
        <time>2016-07-31T09:21:55Z</time>
      </trkpt>
      <trkpt lat="42.43734" lon="0.05609">
        <ele>811.8</ele>
        <time>2016-07-31T09:21:57Z</time>
      </trkpt>
      <trkpt lat="42.43731" lon="0.05608">
        <ele>812</ele>
        <time>2016-07-31T09:21:59Z</time>
      </trkpt>
      <trkpt lat="42.43728" lon="0.05606">
        <ele>812.4</ele>
        <time>2016-07-31T09:22:01Z</time>
      </trkpt>
      <trkpt lat="42.43726" lon="0.05604">
        <ele>812.9</ele>
        <time>2016-07-31T09:22:03Z</time>
      </trkpt>
      <trkpt lat="42.43724" lon="0.056">
        <ele>813.7</ele>
        <time>2016-07-31T09:22:05Z</time>
      </trkpt>
      <trkpt lat="42.43723" lon="0.05596">
        <ele>814.5</ele>
        <time>2016-07-31T09:22:07Z</time>
      </trkpt>
      <trkpt lat="42.43725" lon="0.05592">
        <ele>815.5</ele>
        <time>2016-07-31T09:22:09Z</time>
      </trkpt>
      <trkpt lat="42.43729" lon="0.0559">
        <ele>815.8</ele>
        <time>2016-07-31T09:22:11Z</time>
      </trkpt>
      <trkpt lat="42.43734" lon="0.05591">
        <ele>815.7</ele>
        <time>2016-07-31T09:22:13Z</time>
      </trkpt>
      <trkpt lat="42.43739" lon="0.05592">
        <ele>815.6</ele>
        <time>2016-07-31T09:22:15Z</time>
      </trkpt>
      <trkpt lat="42.43742" lon="0.05593">
        <ele>815.6</ele>
        <time>2016-07-31T09:22:16Z</time>
      </trkpt>
      <trkpt lat="42.43745" lon="0.05593">
        <ele>815.6</ele>
        <time>2016-07-31T09:22:17Z</time>
      </trkpt>
      <trkpt lat="42.4375" lon="0.05592">
        <ele>815.8</ele>
        <time>2016-07-31T09:22:19Z</time>
      </trkpt>
      <trkpt lat="42.43754" lon="0.05592">
        <ele>815.9</ele>
        <time>2016-07-31T09:22:21Z</time>
      </trkpt>
      <trkpt lat="42.43758" lon="0.05593">
        <ele>815.8</ele>
        <time>2016-07-31T09:22:23Z</time>
      </trkpt>
      <trkpt lat="42.43762" lon="0.05593">
        <ele>815.9</ele>
        <time>2016-07-31T09:22:25Z</time>
      </trkpt>
      <trkpt lat="42.43766" lon="0.05592">
        <ele>816.1</ele>
        <time>2016-07-31T09:22:27Z</time>
      </trkpt>
      <trkpt lat="42.4377" lon="0.05593">
        <ele>816.1</ele>
        <time>2016-07-31T09:22:29Z</time>
      </trkpt>
      <trkpt lat="42.43774" lon="0.05594">
        <ele>815.8</ele>
        <time>2016-07-31T09:22:31Z</time>
      </trkpt>
      <trkpt lat="42.43778" lon="0.05595">
        <ele>815.7</ele>
        <time>2016-07-31T09:22:33Z</time>
      </trkpt>
      <trkpt lat="42.43782" lon="0.05596">
        <ele>815.6</ele>
        <time>2016-07-31T09:22:35Z</time>
      </trkpt>
      <trkpt lat="42.43787" lon="0.05597">
        <ele>815.4</ele>
        <time>2016-07-31T09:22:37Z</time>
      </trkpt>
      <trkpt lat="42.43792" lon="0.05598">
        <ele>815.3</ele>
        <time>2016-07-31T09:22:39Z</time>
      </trkpt>
      <trkpt lat="42.43798" lon="0.05598">
        <ele>815.6</ele>
        <time>2016-07-31T09:22:41Z</time>
      </trkpt>
      <trkpt lat="42.43803" lon="0.05599">
        <ele>815.9</ele>
        <time>2016-07-31T09:22:43Z</time>
      </trkpt>
      <trkpt lat="42.43808" lon="0.05599">
        <ele>816.3</ele>
        <time>2016-07-31T09:22:45Z</time>
      </trkpt>
      <trkpt lat="42.43813" lon="0.056">
        <ele>816.6</ele>
        <time>2016-07-31T09:22:47Z</time>
      </trkpt>
      <trkpt lat="42.43818" lon="0.05601">
        <ele>816.8</ele>
        <time>2016-07-31T09:22:49Z</time>
      </trkpt>
      <trkpt lat="42.43823" lon="0.05602">
        <ele>817</ele>
        <time>2016-07-31T09:22:51Z</time>
      </trkpt>
      <trkpt lat="42.43827" lon="0.05602">
        <ele>817.3</ele>
        <time>2016-07-31T09:22:53Z</time>
      </trkpt>
      <trkpt lat="42.43832" lon="0.05603">
        <ele>817.6</ele>
        <time>2016-07-31T09:22:55Z</time>
      </trkpt>
      <trkpt lat="42.43837" lon="0.05603">
        <ele>817.9</ele>
        <time>2016-07-31T09:22:57Z</time>
      </trkpt>
      <trkpt lat="42.43841" lon="0.05603">
        <ele>818.2</ele>
        <time>2016-07-31T09:22:59Z</time>
      </trkpt>
      <trkpt lat="42.43846" lon="0.05603">
        <ele>818.6</ele>
        <time>2016-07-31T09:23:01Z</time>
      </trkpt>
      <trkpt lat="42.43851" lon="0.05603">
        <ele>818.9</ele>
        <time>2016-07-31T09:23:03Z</time>
      </trkpt>
      <trkpt lat="42.43855" lon="0.05603">
        <ele>819.3</ele>
        <time>2016-07-31T09:23:05Z</time>
      </trkpt>
      <trkpt lat="42.4386" lon="0.05603">
        <ele>819.7</ele>
        <time>2016-07-31T09:23:07Z</time>
      </trkpt>
      <trkpt lat="42.43864" lon="0.05603">
        <ele>820.1</ele>
        <time>2016-07-31T09:23:09Z</time>
      </trkpt>
      <trkpt lat="42.43869" lon="0.05603">
        <ele>820.5</ele>
        <time>2016-07-31T09:23:11Z</time>
      </trkpt>
      <trkpt lat="42.43873" lon="0.05603">
        <ele>820.9</ele>
        <time>2016-07-31T09:23:13Z</time>
      </trkpt>
      <trkpt lat="42.43877" lon="0.05602">
        <ele>821.4</ele>
        <time>2016-07-31T09:23:15Z</time>
      </trkpt>
      <trkpt lat="42.4388" lon="0.05601">
        <ele>822.2</ele>
        <time>2016-07-31T09:23:17Z</time>
      </trkpt>
      <trkpt lat="42.43882" lon="0.05598">
        <ele>823.2</ele>
        <time>2016-07-31T09:23:19Z</time>
      </trkpt>
      <trkpt lat="42.43882" lon="0.05595">
        <ele>824.3</ele>
        <time>2016-07-31T09:23:21Z</time>
      </trkpt>
      <trkpt lat="42.43881" lon="0.05591">
        <ele>825.1</ele>
        <time>2016-07-31T09:23:23Z</time>
      </trkpt>
      <trkpt lat="42.43878" lon="0.05588">
        <ele>825.6</ele>
        <time>2016-07-31T09:23:25Z</time>
      </trkpt>
      <trkpt lat="42.43875" lon="0.05587">
        <ele>825.6</ele>
        <time>2016-07-31T09:23:27Z</time>
      </trkpt>
      <trkpt lat="42.43871" lon="0.05586">
        <ele>825.4</ele>
        <time>2016-07-31T09:23:29Z</time>
      </trkpt>
      <trkpt lat="42.43867" lon="0.05585">
        <ele>825.4</ele>
        <time>2016-07-31T09:23:31Z</time>
      </trkpt>
      <trkpt lat="42.43864" lon="0.05583">
        <ele>825.4</ele>
        <time>2016-07-31T09:23:33Z</time>
      </trkpt>
      <trkpt lat="42.4386" lon="0.05582">
        <ele>825.5</ele>
        <time>2016-07-31T09:23:35Z</time>
      </trkpt>
      <trkpt lat="42.43856" lon="0.0558">
        <ele>825.7</ele>
        <time>2016-07-31T09:23:37Z</time>
      </trkpt>
      <trkpt lat="42.43853" lon="0.05578">
        <ele>825.9</ele>
        <time>2016-07-31T09:23:39Z</time>
      </trkpt>
      <trkpt lat="42.4385" lon="0.05576">
        <ele>826.1</ele>
        <time>2016-07-31T09:23:41Z</time>
      </trkpt>
      <trkpt lat="42.43847" lon="0.05574">
        <ele>826.3</ele>
        <time>2016-07-31T09:23:43Z</time>
      </trkpt>
      <trkpt lat="42.43844" lon="0.05572">
        <ele>826.5</ele>
        <time>2016-07-31T09:23:45Z</time>
      </trkpt>
      <trkpt lat="42.43841" lon="0.0557">
        <ele>826.7</ele>
        <time>2016-07-31T09:23:47Z</time>
      </trkpt>
      <trkpt lat="42.43838" lon="0.05568">
        <ele>827</ele>
        <time>2016-07-31T09:23:49Z</time>
      </trkpt>
      <trkpt lat="42.43835" lon="0.05565">
        <ele>827.2</ele>
        <time>2016-07-31T09:23:51Z</time>
      </trkpt>
      <trkpt lat="42.43832" lon="0.05563">
        <ele>827.4</ele>
        <time>2016-07-31T09:23:53Z</time>
      </trkpt>
      <trkpt lat="42.43829" lon="0.05561">
        <ele>827.6</ele>
        <time>2016-07-31T09:23:55Z</time>
      </trkpt>
      <trkpt lat="42.43826" lon="0.05559">
        <ele>827.8</ele>
        <time>2016-07-31T09:23:57Z</time>
      </trkpt>
      <trkpt lat="42.43823" lon="0.05557">
        <ele>828.1</ele>
        <time>2016-07-31T09:23:59Z</time>
      </trkpt>
      <trkpt lat="42.4382" lon="0.05554">
        <ele>828.4</ele>
        <time>2016-07-31T09:24:01Z</time>
      </trkpt>
      <trkpt lat="42.43817" lon="0.05552">
        <ele>828.6</ele>
        <time>2016-07-31T09:24:03Z</time>
      </trkpt>
      <trkpt lat="42.43815" lon="0.05549">
        <ele>829</ele>
        <time>2016-07-31T09:24:05Z</time>
      </trkpt>
      <trkpt lat="42.43813" lon="0.05546">
        <ele>829.5</ele>
        <time>2016-07-31T09:24:07Z</time>
      </trkpt>
      <trkpt lat="42.4381" lon="0.05543">
        <ele>829.9</ele>
        <time>2016-07-31T09:24:09Z</time>
      </trkpt>
      <trkpt lat="42.43808" lon="0.0554">
        <ele>830.4</ele>
        <time>2016-07-31T09:24:11Z</time>
      </trkpt>
      <trkpt lat="42.43805" lon="0.05536">
        <ele>831.3</ele>
        <time>2016-07-31T09:24:13Z</time>
      </trkpt>
      <trkpt lat="42.43803" lon="0.05533">
        <ele>831.9</ele>
        <time>2016-07-31T09:24:15Z</time>
      </trkpt>
      <trkpt lat="42.43801" lon="0.0553">
        <ele>832.7</ele>
        <time>2016-07-31T09:24:17Z</time>
      </trkpt>
      <trkpt lat="42.43799" lon="0.05526">
        <ele>833.5</ele>
        <time>2016-07-31T09:24:19Z</time>
      </trkpt>
      <trkpt lat="42.43797" lon="0.05523">
        <ele>834.3</ele>
        <time>2016-07-31T09:24:21Z</time>
      </trkpt>
      <trkpt lat="42.43794" lon="0.0552">
        <ele>834.8</ele>
        <time>2016-07-31T09:24:23Z</time>
      </trkpt>
      <trkpt lat="42.43791" lon="0.05517">
        <ele>835.3</ele>
        <time>2016-07-31T09:24:25Z</time>
      </trkpt>
      <trkpt lat="42.43789" lon="0.05515">
        <ele>836.1</ele>
        <time>2016-07-31T09:24:27Z</time>
      </trkpt>
      <trkpt lat="42.43786" lon="0.05512">
        <ele>836.9</ele>
        <time>2016-07-31T09:24:29Z</time>
      </trkpt>
      <trkpt lat="42.43783" lon="0.05509">
        <ele>837.7</ele>
        <time>2016-07-31T09:24:31Z</time>
      </trkpt>
      <trkpt lat="42.43779" lon="0.05506">
        <ele>838.5</ele>
        <time>2016-07-31T09:24:33Z</time>
      </trkpt>
      <trkpt lat="42.43775" lon="0.05504">
        <ele>839</ele>
        <time>2016-07-31T09:24:35Z</time>
      </trkpt>
      <trkpt lat="42.43772" lon="0.05502">
        <ele>839.5</ele>
        <time>2016-07-31T09:24:37Z</time>
      </trkpt>
      <trkpt lat="42.43769" lon="0.05499">
        <ele>840.1</ele>
        <time>2016-07-31T09:24:39Z</time>
      </trkpt>
      <trkpt lat="42.43766" lon="0.05497">
        <ele>840.7</ele>
        <time>2016-07-31T09:24:41Z</time>
      </trkpt>
      <trkpt lat="42.43763" lon="0.05495">
        <ele>841.5</ele>
        <time>2016-07-31T09:24:43Z</time>
      </trkpt>
      <trkpt lat="42.4376" lon="0.05492">
        <ele>842.1</ele>
        <time>2016-07-31T09:24:45Z</time>
      </trkpt>
      <trkpt lat="42.43756" lon="0.0549">
        <ele>842.6</ele>
        <time>2016-07-31T09:24:47Z</time>
      </trkpt>
      <trkpt lat="42.43753" lon="0.05489">
        <ele>843</ele>
        <time>2016-07-31T09:24:49Z</time>
      </trkpt>
      <trkpt lat="42.4375" lon="0.05486">
        <ele>843.7</ele>
        <time>2016-07-31T09:24:51Z</time>
      </trkpt>
      <trkpt lat="42.43747" lon="0.05484">
        <ele>844.3</ele>
        <time>2016-07-31T09:24:53Z</time>
      </trkpt>
      <trkpt lat="42.43744" lon="0.05481">
        <ele>845</ele>
        <time>2016-07-31T09:24:55Z</time>
      </trkpt>
      <trkpt lat="42.43741" lon="0.05479">
        <ele>845.6</ele>
        <time>2016-07-31T09:24:57Z</time>
      </trkpt>
      <trkpt lat="42.43739" lon="0.05476">
        <ele>846.3</ele>
        <time>2016-07-31T09:24:59Z</time>
      </trkpt>
      <trkpt lat="42.43735" lon="0.05474">
        <ele>846.9</ele>
        <time>2016-07-31T09:25:01Z</time>
      </trkpt>
      <trkpt lat="42.43732" lon="0.05472">
        <ele>847.4</ele>
        <time>2016-07-31T09:25:03Z</time>
      </trkpt>
      <trkpt lat="42.43729" lon="0.05471">
        <ele>847.8</ele>
        <time>2016-07-31T09:25:05Z</time>
      </trkpt>
      <trkpt lat="42.43726" lon="0.05469">
        <ele>848.3</ele>
        <time>2016-07-31T09:25:07Z</time>
      </trkpt>
      <trkpt lat="42.43723" lon="0.05467">
        <ele>848.7</ele>
        <time>2016-07-31T09:25:09Z</time>
      </trkpt>
      <trkpt lat="42.4372" lon="0.05466">
        <ele>849</ele>
        <time>2016-07-31T09:25:11Z</time>
      </trkpt>
      <trkpt lat="42.43717" lon="0.05465">
        <ele>849.3</ele>
        <time>2016-07-31T09:25:13Z</time>
      </trkpt>
      <trkpt lat="42.43714" lon="0.05463">
        <ele>849.6</ele>
        <time>2016-07-31T09:25:15Z</time>
      </trkpt>
      <trkpt lat="42.4371" lon="0.05462">
        <ele>849.8</ele>
        <time>2016-07-31T09:25:17Z</time>
      </trkpt>
      <trkpt lat="42.43707" lon="0.05463">
        <ele>849.7</ele>
        <time>2016-07-31T09:25:19Z</time>
      </trkpt>
      <trkpt lat="42.43704" lon="0.05463">
        <ele>849.6</ele>
        <time>2016-07-31T09:25:21Z</time>
      </trkpt>
      <trkpt lat="42.43701" lon="0.05464">
        <ele>849.5</ele>
        <time>2016-07-31T09:25:23Z</time>
      </trkpt>
      <trkpt lat="42.43698" lon="0.05464">
        <ele>849.4</ele>
        <time>2016-07-31T09:25:25Z</time>
      </trkpt>
      <trkpt lat="42.43694" lon="0.05464">
        <ele>849.6</ele>
        <time>2016-07-31T09:25:27Z</time>
      </trkpt>
      <trkpt lat="42.43692" lon="0.05463">
        <ele>849.8</ele>
        <time>2016-07-31T09:25:29Z</time>
      </trkpt>
      <trkpt lat="42.43688" lon="0.05463">
        <ele>850</ele>
        <time>2016-07-31T09:25:31Z</time>
      </trkpt>
      <trkpt lat="42.43685" lon="0.05462">
        <ele>850.1</ele>
        <time>2016-07-31T09:25:33Z</time>
      </trkpt>
      <trkpt lat="42.43681" lon="0.05462">
        <ele>850.2</ele>
        <time>2016-07-31T09:25:35Z</time>
      </trkpt>
      <trkpt lat="42.43677" lon="0.05462">
        <ele>850.3</ele>
        <time>2016-07-31T09:25:37Z</time>
      </trkpt>
      <trkpt lat="42.43674" lon="0.05461">
        <ele>850.4</ele>
        <time>2016-07-31T09:25:39Z</time>
      </trkpt>
      <trkpt lat="42.4367" lon="0.05461">
        <ele>850.6</ele>
        <time>2016-07-31T09:25:41Z</time>
      </trkpt>
      <trkpt lat="42.43667" lon="0.0546">
        <ele>850.9</ele>
        <time>2016-07-31T09:25:43Z</time>
      </trkpt>
      <trkpt lat="42.43664" lon="0.05458">
        <ele>851.6</ele>
        <time>2016-07-31T09:25:45Z</time>
      </trkpt>
      <trkpt lat="42.43662" lon="0.05456">
        <ele>852.6</ele>
        <time>2016-07-31T09:25:47Z</time>
      </trkpt>
      <trkpt lat="42.43659" lon="0.05453">
        <ele>853.7</ele>
        <time>2016-07-31T09:25:49Z</time>
      </trkpt>
      <trkpt lat="42.43657" lon="0.0545">
        <ele>854.9</ele>
        <time>2016-07-31T09:25:51Z</time>
      </trkpt>
      <trkpt lat="42.43654" lon="0.05447">
        <ele>855.9</ele>
        <time>2016-07-31T09:25:53Z</time>
      </trkpt>
      <trkpt lat="42.43651" lon="0.05445">
        <ele>856.9</ele>
        <time>2016-07-31T09:25:55Z</time>
      </trkpt>
      <trkpt lat="42.43648" lon="0.05442">
        <ele>857.9</ele>
        <time>2016-07-31T09:25:57Z</time>
      </trkpt>
      <trkpt lat="42.43645" lon="0.0544">
        <ele>858.8</ele>
        <time>2016-07-31T09:25:59Z</time>
      </trkpt>
      <trkpt lat="42.43642" lon="0.05439">
        <ele>859.4</ele>
        <time>2016-07-31T09:26:01Z</time>
      </trkpt>
      <trkpt lat="42.43639" lon="0.05438">
        <ele>859.8</ele>
        <time>2016-07-31T09:26:03Z</time>
      </trkpt>
      <trkpt lat="42.43635" lon="0.05437">
        <ele>860.3</ele>
        <time>2016-07-31T09:26:05Z</time>
      </trkpt>
      <trkpt lat="42.43632" lon="0.05435">
        <ele>860.8</ele>
        <time>2016-07-31T09:26:07Z</time>
      </trkpt>
      <trkpt lat="42.43628" lon="0.05435">
        <ele>860.8</ele>
        <time>2016-07-31T09:26:09Z</time>
      </trkpt>
      <trkpt lat="42.43625" lon="0.05436">
        <ele>860.4</ele>
        <time>2016-07-31T09:26:11Z</time>
      </trkpt>
      <trkpt lat="42.43621" lon="0.05437">
        <ele>860</ele>
        <time>2016-07-31T09:26:13Z</time>
      </trkpt>
      <trkpt lat="42.43618" lon="0.05438">
        <ele>859.6</ele>
        <time>2016-07-31T09:26:15Z</time>
      </trkpt>
      <trkpt lat="42.43615" lon="0.05439">
        <ele>859.3</ele>
        <time>2016-07-31T09:26:17Z</time>
      </trkpt>
      <trkpt lat="42.43612" lon="0.05438">
        <ele>859.3</ele>
        <time>2016-07-31T09:26:19Z</time>
      </trkpt>
      <trkpt lat="42.43609" lon="0.05438">
        <ele>859.5</ele>
        <time>2016-07-31T09:26:21Z</time>
      </trkpt>
      <trkpt lat="42.43605" lon="0.05437">
        <ele>859.9</ele>
        <time>2016-07-31T09:26:23Z</time>
      </trkpt>
      <trkpt lat="42.43602" lon="0.05435">
        <ele>860.2</ele>
        <time>2016-07-31T09:26:25Z</time>
      </trkpt>
      <trkpt lat="42.43598" lon="0.05434">
        <ele>860.6</ele>
        <time>2016-07-31T09:26:27Z</time>
      </trkpt>
      <trkpt lat="42.43594" lon="0.05433">
        <ele>861</ele>
        <time>2016-07-31T09:26:29Z</time>
      </trkpt>
      <trkpt lat="42.43591" lon="0.05431">
        <ele>861.4</ele>
        <time>2016-07-31T09:26:31Z</time>
      </trkpt>
      <trkpt lat="42.43587" lon="0.0543">
        <ele>861.7</ele>
        <time>2016-07-31T09:26:33Z</time>
      </trkpt>
      <trkpt lat="42.43584" lon="0.0543">
        <ele>861.7</ele>
        <time>2016-07-31T09:26:35Z</time>
      </trkpt>
      <trkpt lat="42.4358" lon="0.05429">
        <ele>861.9</ele>
        <time>2016-07-31T09:26:37Z</time>
      </trkpt>
      <trkpt lat="42.43577" lon="0.05428">
        <ele>862.1</ele>
        <time>2016-07-31T09:26:39Z</time>
      </trkpt>
      <trkpt lat="42.43574" lon="0.05427">
        <ele>862.4</ele>
        <time>2016-07-31T09:26:41Z</time>
      </trkpt>
      <trkpt lat="42.4357" lon="0.05426">
        <ele>862.7</ele>
        <time>2016-07-31T09:26:43Z</time>
      </trkpt>
      <trkpt lat="42.43567" lon="0.05425">
        <ele>863.1</ele>
        <time>2016-07-31T09:26:45Z</time>
      </trkpt>
      <trkpt lat="42.43564" lon="0.05423">
        <ele>863.7</ele>
        <time>2016-07-31T09:26:47Z</time>
      </trkpt>
      <trkpt lat="42.43561" lon="0.05421">
        <ele>864.1</ele>
        <time>2016-07-31T09:26:49Z</time>
      </trkpt>
      <trkpt lat="42.43557" lon="0.0542">
        <ele>864.5</ele>
        <time>2016-07-31T09:26:51Z</time>
      </trkpt>
      <trkpt lat="42.43554" lon="0.05417">
        <ele>865.2</ele>
        <time>2016-07-31T09:26:53Z</time>
      </trkpt>
      <trkpt lat="42.43551" lon="0.05415">
        <ele>865.9</ele>
        <time>2016-07-31T09:26:55Z</time>
      </trkpt>
      <trkpt lat="42.43547" lon="0.05413">
        <ele>866.4</ele>
        <time>2016-07-31T09:26:57Z</time>
      </trkpt>
      <trkpt lat="42.43544" lon="0.05411">
        <ele>866.9</ele>
        <time>2016-07-31T09:26:59Z</time>
      </trkpt>
      <trkpt lat="42.43541" lon="0.0541">
        <ele>867</ele>
        <time>2016-07-31T09:27:01Z</time>
      </trkpt>
      <trkpt lat="42.43538" lon="0.0541">
        <ele>866.8</ele>
        <time>2016-07-31T09:27:03Z</time>
      </trkpt>
      <trkpt lat="42.43535" lon="0.0541">
        <ele>866.3</ele>
        <time>2016-07-31T09:27:05Z</time>
      </trkpt>
      <trkpt lat="42.43531" lon="0.0541">
        <ele>865.9</ele>
        <time>2016-07-31T09:27:07Z</time>
      </trkpt>
      <trkpt lat="42.43527" lon="0.05409">
        <ele>865.4</ele>
        <time>2016-07-31T09:27:09Z</time>
      </trkpt>
      <trkpt lat="42.43523" lon="0.05409">
        <ele>865</ele>
        <time>2016-07-31T09:27:11Z</time>
      </trkpt>
      <trkpt lat="42.4352" lon="0.05407">
        <ele>864.8</ele>
        <time>2016-07-31T09:27:13Z</time>
      </trkpt>
      <trkpt lat="42.43516" lon="0.05407">
        <ele>864.4</ele>
        <time>2016-07-31T09:27:15Z</time>
      </trkpt>
      <trkpt lat="42.43513" lon="0.05407">
        <ele>863.9</ele>
        <time>2016-07-31T09:27:17Z</time>
      </trkpt>
      <trkpt lat="42.43509" lon="0.05406">
        <ele>863.6</ele>
        <time>2016-07-31T09:27:19Z</time>
      </trkpt>
      <trkpt lat="42.43505" lon="0.05406">
        <ele>863.3</ele>
        <time>2016-07-31T09:27:21Z</time>
      </trkpt>
      <trkpt lat="42.43501" lon="0.05405">
        <ele>862.7</ele>
        <time>2016-07-31T09:27:23Z</time>
      </trkpt>
      <trkpt lat="42.43498" lon="0.05405">
        <ele>862.2</ele>
        <time>2016-07-31T09:27:25Z</time>
      </trkpt>
      <trkpt lat="42.43494" lon="0.05405">
        <ele>861.8</ele>
        <time>2016-07-31T09:27:27Z</time>
      </trkpt>
      <trkpt lat="42.43491" lon="0.05405">
        <ele>861.3</ele>
        <time>2016-07-31T09:27:29Z</time>
      </trkpt>
      <trkpt lat="42.43488" lon="0.05406">
        <ele>860.7</ele>
        <time>2016-07-31T09:27:31Z</time>
      </trkpt>
      <trkpt lat="42.43485" lon="0.05406">
        <ele>860.1</ele>
        <time>2016-07-31T09:27:33Z</time>
      </trkpt>
      <trkpt lat="42.43482" lon="0.05405">
        <ele>859.9</ele>
        <time>2016-07-31T09:27:35Z</time>
      </trkpt>
      <trkpt lat="42.43479" lon="0.05404">
        <ele>859.8</ele>
        <time>2016-07-31T09:27:37Z</time>
      </trkpt>
      <trkpt lat="42.43476" lon="0.05403">
        <ele>859.7</ele>
        <time>2016-07-31T09:27:39Z</time>
      </trkpt>
      <trkpt lat="42.43473" lon="0.05402">
        <ele>859.5</ele>
        <time>2016-07-31T09:27:41Z</time>
      </trkpt>
      <trkpt lat="42.4347" lon="0.054">
        <ele>859.6</ele>
        <time>2016-07-31T09:27:43Z</time>
      </trkpt>
      <trkpt lat="42.43467" lon="0.05398">
        <ele>859.7</ele>
        <time>2016-07-31T09:27:45Z</time>
      </trkpt>
      <trkpt lat="42.43464" lon="0.05396">
        <ele>859.9</ele>
        <time>2016-07-31T09:27:47Z</time>
      </trkpt>
      <trkpt lat="42.43462" lon="0.05394">
        <ele>860.1</ele>
        <time>2016-07-31T09:27:49Z</time>
      </trkpt>
      <trkpt lat="42.43459" lon="0.05391">
        <ele>860.6</ele>
        <time>2016-07-31T09:27:51Z</time>
      </trkpt>
      <trkpt lat="42.43457" lon="0.05388">
        <ele>861.2</ele>
        <time>2016-07-31T09:27:53Z</time>
      </trkpt>
      <trkpt lat="42.43454" lon="0.05384">
        <ele>862</ele>
        <time>2016-07-31T09:27:55Z</time>
      </trkpt>
      <trkpt lat="42.43451" lon="0.05381">
        <ele>862.7</ele>
        <time>2016-07-31T09:27:57Z</time>
      </trkpt>
      <trkpt lat="42.43449" lon="0.05377">
        <ele>863.4</ele>
        <time>2016-07-31T09:27:59Z</time>
      </trkpt>
      <trkpt lat="42.43447" lon="0.05374">
        <ele>864.1</ele>
        <time>2016-07-31T09:28:01Z</time>
      </trkpt>
      <trkpt lat="42.43444" lon="0.05371">
        <ele>864.5</ele>
        <time>2016-07-31T09:28:03Z</time>
      </trkpt>
      <trkpt lat="42.43442" lon="0.05368">
        <ele>864.8</ele>
        <time>2016-07-31T09:28:05Z</time>
      </trkpt>
      <trkpt lat="42.4344" lon="0.05365">
        <ele>865.2</ele>
        <time>2016-07-31T09:28:07Z</time>
      </trkpt>
      <trkpt lat="42.43438" lon="0.05362">
        <ele>865.6</ele>
        <time>2016-07-31T09:28:09Z</time>
      </trkpt>
      <trkpt lat="42.43436" lon="0.0536">
        <ele>866</ele>
        <time>2016-07-31T09:28:11Z</time>
      </trkpt>
      <trkpt lat="42.43434" lon="0.05357">
        <ele>866.4</ele>
        <time>2016-07-31T09:28:13Z</time>
      </trkpt>
      <trkpt lat="42.43432" lon="0.05354">
        <ele>866.9</ele>
        <time>2016-07-31T09:28:15Z</time>
      </trkpt>
      <trkpt lat="42.43431" lon="0.0535">
        <ele>867.5</ele>
        <time>2016-07-31T09:28:17Z</time>
      </trkpt>
      <trkpt lat="42.4343" lon="0.05347">
        <ele>868.2</ele>
        <time>2016-07-31T09:28:19Z</time>
      </trkpt>
      <trkpt lat="42.43428" lon="0.05343">
        <ele>868.8</ele>
        <time>2016-07-31T09:28:21Z</time>
      </trkpt>
      <trkpt lat="42.43428" lon="0.0534">
        <ele>869.5</ele>
        <time>2016-07-31T09:28:23Z</time>
      </trkpt>
      <trkpt lat="42.43427" lon="0.05335">
        <ele>870.3</ele>
        <time>2016-07-31T09:28:25Z</time>
      </trkpt>
      <trkpt lat="42.43427" lon="0.05331">
        <ele>871.2</ele>
        <time>2016-07-31T09:28:27Z</time>
      </trkpt>
      <trkpt lat="42.43427" lon="0.05327">
        <ele>872.2</ele>
        <time>2016-07-31T09:28:29Z</time>
      </trkpt>
      <trkpt lat="42.43427" lon="0.05323">
        <ele>872.9</ele>
        <time>2016-07-31T09:28:31Z</time>
      </trkpt>
      <trkpt lat="42.43426" lon="0.05319">
        <ele>873.7</ele>
        <time>2016-07-31T09:28:33Z</time>
      </trkpt>
      <trkpt lat="42.43426" lon="0.05315">
        <ele>874.6</ele>
        <time>2016-07-31T09:28:35Z</time>
      </trkpt>
      <trkpt lat="42.43426" lon="0.0531">
        <ele>875.5</ele>
        <time>2016-07-31T09:28:37Z</time>
      </trkpt>
      <trkpt lat="42.43425" lon="0.05306">
        <ele>876.3</ele>
        <time>2016-07-31T09:28:39Z</time>
      </trkpt>
      <trkpt lat="42.43425" lon="0.05303">
        <ele>877.1</ele>
        <time>2016-07-31T09:28:41Z</time>
      </trkpt>
      <trkpt lat="42.43425" lon="0.05299">
        <ele>877.9</ele>
        <time>2016-07-31T09:28:43Z</time>
      </trkpt>
      <trkpt lat="42.43424" lon="0.05295">
        <ele>878.7</ele>
        <time>2016-07-31T09:28:45Z</time>
      </trkpt>
      <trkpt lat="42.43423" lon="0.05291">
        <ele>879.4</ele>
        <time>2016-07-31T09:28:47Z</time>
      </trkpt>
      <trkpt lat="42.43421" lon="0.05287">
        <ele>880.5</ele>
        <time>2016-07-31T09:28:50Z</time>
      </trkpt>
      <trkpt lat="42.43419" lon="0.05283">
        <ele>881.2</ele>
        <time>2016-07-31T09:28:52Z</time>
      </trkpt>
      <trkpt lat="42.43416" lon="0.05281">
        <ele>881.8</ele>
        <time>2016-07-31T09:28:54Z</time>
      </trkpt>
      <trkpt lat="42.43413" lon="0.05278">
        <ele>882.4</ele>
        <time>2016-07-31T09:28:56Z</time>
      </trkpt>
      <trkpt lat="42.43411" lon="0.05275">
        <ele>883</ele>
        <time>2016-07-31T09:28:58Z</time>
      </trkpt>
      <trkpt lat="42.43408" lon="0.05272">
        <ele>883.6</ele>
        <time>2016-07-31T09:29:00Z</time>
      </trkpt>
      <trkpt lat="42.43405" lon="0.0527">
        <ele>883.9</ele>
        <time>2016-07-31T09:29:02Z</time>
      </trkpt>
      <trkpt lat="42.43402" lon="0.05269">
        <ele>884.1</ele>
        <time>2016-07-31T09:29:04Z</time>
      </trkpt>
      <trkpt lat="42.43399" lon="0.05267">
        <ele>884.3</ele>
        <time>2016-07-31T09:29:06Z</time>
      </trkpt>
      <trkpt lat="42.43396" lon="0.05266">
        <ele>884.4</ele>
        <time>2016-07-31T09:29:08Z</time>
      </trkpt>
      <trkpt lat="42.43392" lon="0.05266">
        <ele>884.4</ele>
        <time>2016-07-31T09:29:10Z</time>
      </trkpt>
      <trkpt lat="42.43389" lon="0.05266">
        <ele>884.2</ele>
        <time>2016-07-31T09:29:12Z</time>
      </trkpt>
      <trkpt lat="42.43385" lon="0.05266">
        <ele>883.9</ele>
        <time>2016-07-31T09:29:14Z</time>
      </trkpt>
      <trkpt lat="42.43382" lon="0.05267">
        <ele>883.6</ele>
        <time>2016-07-31T09:29:16Z</time>
      </trkpt>
      <trkpt lat="42.43379" lon="0.05267">
        <ele>883.3</ele>
        <time>2016-07-31T09:29:18Z</time>
      </trkpt>
      <trkpt lat="42.43375" lon="0.05268">
        <ele>883.1</ele>
        <time>2016-07-31T09:29:20Z</time>
      </trkpt>
      <trkpt lat="42.43372" lon="0.05267">
        <ele>883</ele>
        <time>2016-07-31T09:29:22Z</time>
      </trkpt>
      <trkpt lat="42.43369" lon="0.05266">
        <ele>883.2</ele>
        <time>2016-07-31T09:29:24Z</time>
      </trkpt>
      <trkpt lat="42.43365" lon="0.05264">
        <ele>883.4</ele>
        <time>2016-07-31T09:29:26Z</time>
      </trkpt>
      <trkpt lat="42.43362" lon="0.05262">
        <ele>883.7</ele>
        <time>2016-07-31T09:29:28Z</time>
      </trkpt>
      <trkpt lat="42.43359" lon="0.05259">
        <ele>884.3</ele>
        <time>2016-07-31T09:29:30Z</time>
      </trkpt>
      <trkpt lat="42.43356" lon="0.05256">
        <ele>884.9</ele>
        <time>2016-07-31T09:29:32Z</time>
      </trkpt>
      <trkpt lat="42.43353" lon="0.05253">
        <ele>885.5</ele>
        <time>2016-07-31T09:29:34Z</time>
      </trkpt>
      <trkpt lat="42.43351" lon="0.0525">
        <ele>886</ele>
        <time>2016-07-31T09:29:36Z</time>
      </trkpt>
      <trkpt lat="42.43348" lon="0.05247">
        <ele>886.5</ele>
        <time>2016-07-31T09:29:38Z</time>
      </trkpt>
      <trkpt lat="42.43345" lon="0.05245">
        <ele>887</ele>
        <time>2016-07-31T09:29:40Z</time>
      </trkpt>
      <trkpt lat="42.43342" lon="0.05242">
        <ele>887.4</ele>
        <time>2016-07-31T09:29:42Z</time>
      </trkpt>
      <trkpt lat="42.43339" lon="0.0524">
        <ele>887.8</ele>
        <time>2016-07-31T09:29:44Z</time>
      </trkpt>
      <trkpt lat="42.43336" lon="0.05238">
        <ele>888</ele>
        <time>2016-07-31T09:29:46Z</time>
      </trkpt>
      <trkpt lat="42.43333" lon="0.05236">
        <ele>888.3</ele>
        <time>2016-07-31T09:29:48Z</time>
      </trkpt>
      <trkpt lat="42.43331" lon="0.05234">
        <ele>888.6</ele>
        <time>2016-07-31T09:29:50Z</time>
      </trkpt>
      <trkpt lat="42.43328" lon="0.05232">
        <ele>889.1</ele>
        <time>2016-07-31T09:29:52Z</time>
      </trkpt>
      <trkpt lat="42.43326" lon="0.05229">
        <ele>889.6</ele>
        <time>2016-07-31T09:29:54Z</time>
      </trkpt>
      <trkpt lat="42.43323" lon="0.05225">
        <ele>890.2</ele>
        <time>2016-07-31T09:29:56Z</time>
      </trkpt>
      <trkpt lat="42.4332" lon="0.05222">
        <ele>890.8</ele>
        <time>2016-07-31T09:29:58Z</time>
      </trkpt>
      <trkpt lat="42.43317" lon="0.05219">
        <ele>891.4</ele>
        <time>2016-07-31T09:30:00Z</time>
      </trkpt>
      <trkpt lat="42.43314" lon="0.05216">
        <ele>891.9</ele>
        <time>2016-07-31T09:30:02Z</time>
      </trkpt>
      <trkpt lat="42.43311" lon="0.05212">
        <ele>892.5</ele>
        <time>2016-07-31T09:30:04Z</time>
      </trkpt>
      <trkpt lat="42.43308" lon="0.0521">
        <ele>892.7</ele>
        <time>2016-07-31T09:30:06Z</time>
      </trkpt>
      <trkpt lat="42.43304" lon="0.0521">
        <ele>892.5</ele>
        <time>2016-07-31T09:30:08Z</time>
      </trkpt>
      <trkpt lat="42.43301" lon="0.05209">
        <ele>892.4</ele>
        <time>2016-07-31T09:30:10Z</time>
      </trkpt>
      <trkpt lat="42.43298" lon="0.05209">
        <ele>892.2</ele>
        <time>2016-07-31T09:30:12Z</time>
      </trkpt>
      <trkpt lat="42.43294" lon="0.0521">
        <ele>891.8</ele>
        <time>2016-07-31T09:30:14Z</time>
      </trkpt>
      <trkpt lat="42.43291" lon="0.05211">
        <ele>891.1</ele>
        <time>2016-07-31T09:30:16Z</time>
      </trkpt>
      <trkpt lat="42.43287" lon="0.05211">
        <ele>889.8</ele>
        <time>2016-07-31T09:30:18Z</time>
      </trkpt>
      <trkpt lat="42.43284" lon="0.05211">
        <ele>888.8</ele>
        <time>2016-07-31T09:30:20Z</time>
      </trkpt>
      <trkpt lat="42.43281" lon="0.05211">
        <ele>887.7</ele>
        <time>2016-07-31T09:30:22Z</time>
      </trkpt>
      <trkpt lat="42.43277" lon="0.05211">
        <ele>886.5</ele>
        <time>2016-07-31T09:30:24Z</time>
      </trkpt>
      <trkpt lat="42.43274" lon="0.05211">
        <ele>885.6</ele>
        <time>2016-07-31T09:30:26Z</time>
      </trkpt>
      <trkpt lat="42.43271" lon="0.05211">
        <ele>884.5</ele>
        <time>2016-07-31T09:30:28Z</time>
      </trkpt>
      <trkpt lat="42.43267" lon="0.0521">
        <ele>883.4</ele>
        <time>2016-07-31T09:30:30Z</time>
      </trkpt>
      <trkpt lat="42.43264" lon="0.05209">
        <ele>882.4</ele>
        <time>2016-07-31T09:30:32Z</time>
      </trkpt>
      <trkpt lat="42.4326" lon="0.05209">
        <ele>881.3</ele>
        <time>2016-07-31T09:30:34Z</time>
      </trkpt>
      <trkpt lat="42.43257" lon="0.05209">
        <ele>880.2</ele>
        <time>2016-07-31T09:30:36Z</time>
      </trkpt>
      <trkpt lat="42.43253" lon="0.05208">
        <ele>879.4</ele>
        <time>2016-07-31T09:30:38Z</time>
      </trkpt>
      <trkpt lat="42.4325" lon="0.05206">
        <ele>878.5</ele>
        <time>2016-07-31T09:30:40Z</time>
      </trkpt>
      <trkpt lat="42.43247" lon="0.05206">
        <ele>877.6</ele>
        <time>2016-07-31T09:30:42Z</time>
      </trkpt>
      <trkpt lat="42.43243" lon="0.05205">
        <ele>876.6</ele>
        <time>2016-07-31T09:30:44Z</time>
      </trkpt>
      <trkpt lat="42.4324" lon="0.05204">
        <ele>875.8</ele>
        <time>2016-07-31T09:30:46Z</time>
      </trkpt>
      <trkpt lat="42.43237" lon="0.05203">
        <ele>875.1</ele>
        <time>2016-07-31T09:30:48Z</time>
      </trkpt>
      <trkpt lat="42.43234" lon="0.05201">
        <ele>875.1</ele>
        <time>2016-07-31T09:30:50Z</time>
      </trkpt>
      <trkpt lat="42.43233" lon="0.05197">
        <ele>875.9</ele>
        <time>2016-07-31T09:30:52Z</time>
      </trkpt>
      <trkpt lat="42.43235" lon="0.05192">
        <ele>877.6</ele>
        <time>2016-07-31T09:30:54Z</time>
      </trkpt>
      <trkpt lat="42.43238" lon="0.05189">
        <ele>879.4</ele>
        <time>2016-07-31T09:30:56Z</time>
      </trkpt>
      <trkpt lat="42.43241" lon="0.05188">
        <ele>880.8</ele>
        <time>2016-07-31T09:30:58Z</time>
      </trkpt>
      <trkpt lat="42.43245" lon="0.05188">
        <ele>881.7</ele>
        <time>2016-07-31T09:31:00Z</time>
      </trkpt>
      <trkpt lat="42.43248" lon="0.0519">
        <ele>882.4</ele>
        <time>2016-07-31T09:31:02Z</time>
      </trkpt>
      <trkpt lat="42.43252" lon="0.05191">
        <ele>883.2</ele>
        <time>2016-07-31T09:31:04Z</time>
      </trkpt>
      <trkpt lat="42.43256" lon="0.05192">
        <ele>884.1</ele>
        <time>2016-07-31T09:31:06Z</time>
      </trkpt>
      <trkpt lat="42.4326" lon="0.05193">
        <ele>885.1</ele>
        <time>2016-07-31T09:31:08Z</time>
      </trkpt>
      <trkpt lat="42.43263" lon="0.05192">
        <ele>886.2</ele>
        <time>2016-07-31T09:31:10Z</time>
      </trkpt>
      <trkpt lat="42.43266" lon="0.05191">
        <ele>887.3</ele>
        <time>2016-07-31T09:31:12Z</time>
      </trkpt>
      <trkpt lat="42.43269" lon="0.0519">
        <ele>888.5</ele>
        <time>2016-07-31T09:31:14Z</time>
      </trkpt>
      <trkpt lat="42.43272" lon="0.05188">
        <ele>889.8</ele>
        <time>2016-07-31T09:31:16Z</time>
      </trkpt>
      <trkpt lat="42.43275" lon="0.05186">
        <ele>891.1</ele>
        <time>2016-07-31T09:31:18Z</time>
      </trkpt>
      <trkpt lat="42.43278" lon="0.05183">
        <ele>892.5</ele>
        <time>2016-07-31T09:31:20Z</time>
      </trkpt>
      <trkpt lat="42.43281" lon="0.0518">
        <ele>893.9</ele>
        <time>2016-07-31T09:31:22Z</time>
      </trkpt>
      <trkpt lat="42.43283" lon="0.05178">
        <ele>895.3</ele>
        <time>2016-07-31T09:31:24Z</time>
      </trkpt>
      <trkpt lat="42.43286" lon="0.05175">
        <ele>896.6</ele>
        <time>2016-07-31T09:31:26Z</time>
      </trkpt>
      <trkpt lat="42.4329" lon="0.05173">
        <ele>897.8</ele>
        <time>2016-07-31T09:31:28Z</time>
      </trkpt>
      <trkpt lat="42.43293" lon="0.05171">
        <ele>898.8</ele>
        <time>2016-07-31T09:31:30Z</time>
      </trkpt>
      <trkpt lat="42.43295" lon="0.05167">
        <ele>899.7</ele>
        <time>2016-07-31T09:31:32Z</time>
      </trkpt>
      <trkpt lat="42.43296" lon="0.05163">
        <ele>900.6</ele>
        <time>2016-07-31T09:31:34Z</time>
      </trkpt>
      <trkpt lat="42.43298" lon="0.05159">
        <ele>901.5</ele>
        <time>2016-07-31T09:31:36Z</time>
      </trkpt>
      <trkpt lat="42.43299" lon="0.05154">
        <ele>902.3</ele>
        <time>2016-07-31T09:31:38Z</time>
      </trkpt>
      <trkpt lat="42.43301" lon="0.0515">
        <ele>903.2</ele>
        <time>2016-07-31T09:31:40Z</time>
      </trkpt>
      <trkpt lat="42.43303" lon="0.05147">
        <ele>904</ele>
        <time>2016-07-31T09:31:42Z</time>
      </trkpt>
      <trkpt lat="42.43306" lon="0.05144">
        <ele>904.7</ele>
        <time>2016-07-31T09:31:44Z</time>
      </trkpt>
      <trkpt lat="42.43309" lon="0.05142">
        <ele>905.4</ele>
        <time>2016-07-31T09:31:46Z</time>
      </trkpt>
      <trkpt lat="42.43312" lon="0.05139">
        <ele>906.1</ele>
        <time>2016-07-31T09:31:48Z</time>
      </trkpt>
      <trkpt lat="42.43315" lon="0.05137">
        <ele>906.8</ele>
        <time>2016-07-31T09:31:50Z</time>
      </trkpt>
      <trkpt lat="42.43319" lon="0.05136">
        <ele>907.3</ele>
        <time>2016-07-31T09:31:52Z</time>
      </trkpt>
      <trkpt lat="42.43323" lon="0.05136">
        <ele>907.6</ele>
        <time>2016-07-31T09:31:54Z</time>
      </trkpt>
      <trkpt lat="42.43328" lon="0.05137">
        <ele>907.8</ele>
        <time>2016-07-31T09:31:56Z</time>
      </trkpt>
      <trkpt lat="42.43332" lon="0.05139">
        <ele>907.8</ele>
        <time>2016-07-31T09:31:58Z</time>
      </trkpt>
      <trkpt lat="42.43335" lon="0.05143">
        <ele>907.4</ele>
        <time>2016-07-31T09:32:00Z</time>
      </trkpt>
      <trkpt lat="42.43339" lon="0.05146">
        <ele>907</ele>
        <time>2016-07-31T09:32:02Z</time>
      </trkpt>
      <trkpt lat="42.43342" lon="0.05148">
        <ele>906.9</ele>
        <time>2016-07-31T09:32:03Z</time>
      </trkpt>
      <trkpt lat="42.43345" lon="0.0515">
        <ele>906.9</ele>
        <time>2016-07-31T09:32:04Z</time>
      </trkpt>
      <trkpt lat="42.43348" lon="0.0515">
        <ele>907</ele>
        <time>2016-07-31T09:32:05Z</time>
      </trkpt>
      <trkpt lat="42.43351" lon="0.05151">
        <ele>907.1</ele>
        <time>2016-07-31T09:32:06Z</time>
      </trkpt>
      <trkpt lat="42.43354" lon="0.05151">
        <ele>907.3</ele>
        <time>2016-07-31T09:32:07Z</time>
      </trkpt>
      <trkpt lat="42.43357" lon="0.05151">
        <ele>907.6</ele>
        <time>2016-07-31T09:32:08Z</time>
      </trkpt>
      <trkpt lat="42.4336" lon="0.0515">
        <ele>907.9</ele>
        <time>2016-07-31T09:32:09Z</time>
      </trkpt>
      <trkpt lat="42.43362" lon="0.05149">
        <ele>908.4</ele>
        <time>2016-07-31T09:32:10Z</time>
      </trkpt>
      <trkpt lat="42.43365" lon="0.05148">
        <ele>908.9</ele>
        <time>2016-07-31T09:32:11Z</time>
      </trkpt>
      <trkpt lat="42.43367" lon="0.05146">
        <ele>909.4</ele>
        <time>2016-07-31T09:32:12Z</time>
      </trkpt>
      <trkpt lat="42.4337" lon="0.05144">
        <ele>910</ele>
        <time>2016-07-31T09:32:13Z</time>
      </trkpt>
      <trkpt lat="42.43374" lon="0.0514">
        <ele>911</ele>
        <time>2016-07-31T09:32:15Z</time>
      </trkpt>
      <trkpt lat="42.43378" lon="0.05137">
        <ele>911.9</ele>
        <time>2016-07-31T09:32:17Z</time>
      </trkpt>
      <trkpt lat="42.43382" lon="0.05136">
        <ele>912.7</ele>
        <time>2016-07-31T09:32:19Z</time>
      </trkpt>
      <trkpt lat="42.43387" lon="0.05136">
        <ele>913.2</ele>
        <time>2016-07-31T09:32:21Z</time>
      </trkpt>
      <trkpt lat="42.43393" lon="0.05137">
        <ele>913.6</ele>
        <time>2016-07-31T09:32:23Z</time>
      </trkpt>
      <trkpt lat="42.43398" lon="0.05139">
        <ele>913.8</ele>
        <time>2016-07-31T09:32:25Z</time>
      </trkpt>
      <trkpt lat="42.43403" lon="0.05141">
        <ele>913.9</ele>
        <time>2016-07-31T09:32:27Z</time>
      </trkpt>
      <trkpt lat="42.43408" lon="0.05143">
        <ele>914</ele>
        <time>2016-07-31T09:32:29Z</time>
      </trkpt>
      <trkpt lat="42.4341" lon="0.05143">
        <ele>914.2</ele>
        <time>2016-07-31T09:32:30Z</time>
      </trkpt>
      <trkpt lat="42.43416" lon="0.05145">
        <ele>914.4</ele>
        <time>2016-07-31T09:32:32Z</time>
      </trkpt>
      <trkpt lat="42.43421" lon="0.05146">
        <ele>914.6</ele>
        <time>2016-07-31T09:32:34Z</time>
      </trkpt>
      <trkpt lat="42.43426" lon="0.05148">
        <ele>914.7</ele>
        <time>2016-07-31T09:32:36Z</time>
      </trkpt>
      <trkpt lat="42.43431" lon="0.0515">
        <ele>914.7</ele>
        <time>2016-07-31T09:32:38Z</time>
      </trkpt>
      <trkpt lat="42.43435" lon="0.05153">
        <ele>914.4</ele>
        <time>2016-07-31T09:32:40Z</time>
      </trkpt>
      <trkpt lat="42.43439" lon="0.05156">
        <ele>914.1</ele>
        <time>2016-07-31T09:32:42Z</time>
      </trkpt>
      <trkpt lat="42.43443" lon="0.05159">
        <ele>913.6</ele>
        <time>2016-07-31T09:32:44Z</time>
      </trkpt>
      <trkpt lat="42.43448" lon="0.05162">
        <ele>913.2</ele>
        <time>2016-07-31T09:32:46Z</time>
      </trkpt>
      <trkpt lat="42.43452" lon="0.05165">
        <ele>912.8</ele>
        <time>2016-07-31T09:32:48Z</time>
      </trkpt>
      <trkpt lat="42.43456" lon="0.05168">
        <ele>912.4</ele>
        <time>2016-07-31T09:32:50Z</time>
      </trkpt>
      <trkpt lat="42.4346" lon="0.05171">
        <ele>912.2</ele>
        <time>2016-07-31T09:32:52Z</time>
      </trkpt>
      <trkpt lat="42.43465" lon="0.05174">
        <ele>912</ele>
        <time>2016-07-31T09:32:54Z</time>
      </trkpt>
      <trkpt lat="42.43469" lon="0.05177">
        <ele>911.9</ele>
        <time>2016-07-31T09:32:56Z</time>
      </trkpt>
      <trkpt lat="42.43473" lon="0.05179">
        <ele>912</ele>
        <time>2016-07-31T09:32:58Z</time>
      </trkpt>
      <trkpt lat="42.43478" lon="0.0518">
        <ele>912.2</ele>
        <time>2016-07-31T09:33:00Z</time>
      </trkpt>
      <trkpt lat="42.43482" lon="0.05181">
        <ele>912.5</ele>
        <time>2016-07-31T09:33:02Z</time>
      </trkpt>
      <trkpt lat="42.43486" lon="0.05182">
        <ele>912.9</ele>
        <time>2016-07-31T09:33:04Z</time>
      </trkpt>
      <trkpt lat="42.43491" lon="0.05184">
        <ele>913.2</ele>
        <time>2016-07-31T09:33:06Z</time>
      </trkpt>
      <trkpt lat="42.43495" lon="0.05186">
        <ele>913.3</ele>
        <time>2016-07-31T09:33:08Z</time>
      </trkpt>
      <trkpt lat="42.43499" lon="0.05189">
        <ele>913</ele>
        <time>2016-07-31T09:33:10Z</time>
      </trkpt>
      <trkpt lat="42.43503" lon="0.05192">
        <ele>912.7</ele>
        <time>2016-07-31T09:33:12Z</time>
      </trkpt>
      <trkpt lat="42.43507" lon="0.05196">
        <ele>912.3</ele>
        <time>2016-07-31T09:33:14Z</time>
      </trkpt>
      <trkpt lat="42.43511" lon="0.05201">
        <ele>911.5</ele>
        <time>2016-07-31T09:33:16Z</time>
      </trkpt>
      <trkpt lat="42.43514" lon="0.05206">
        <ele>910.8</ele>
        <time>2016-07-31T09:33:18Z</time>
      </trkpt>
      <trkpt lat="42.43518" lon="0.05211">
        <ele>910.1</ele>
        <time>2016-07-31T09:33:20Z</time>
      </trkpt>
      <trkpt lat="42.43521" lon="0.05215">
        <ele>909.7</ele>
        <time>2016-07-31T09:33:22Z</time>
      </trkpt>
      <trkpt lat="42.43524" lon="0.0522">
        <ele>909.3</ele>
        <time>2016-07-31T09:33:24Z</time>
      </trkpt>
      <trkpt lat="42.43527" lon="0.05225">
        <ele>908.7</ele>
        <time>2016-07-31T09:33:26Z</time>
      </trkpt>
      <trkpt lat="42.43529" lon="0.05231">
        <ele>908</ele>
        <time>2016-07-31T09:33:28Z</time>
      </trkpt>
      <trkpt lat="42.43532" lon="0.05236">
        <ele>907.6</ele>
        <time>2016-07-31T09:33:30Z</time>
      </trkpt>
      <trkpt lat="42.43535" lon="0.0524">
        <ele>907.4</ele>
        <time>2016-07-31T09:33:32Z</time>
      </trkpt>
      <trkpt lat="42.43538" lon="0.05242">
        <ele>907.7</ele>
        <time>2016-07-31T09:33:34Z</time>
      </trkpt>
      <trkpt lat="42.43542" lon="0.05243">
        <ele>908.3</ele>
        <time>2016-07-31T09:33:36Z</time>
      </trkpt>
      <trkpt lat="42.43545" lon="0.0524">
        <ele>909.2</ele>
        <time>2016-07-31T09:33:38Z</time>
      </trkpt>
      <trkpt lat="42.43546" lon="0.05236">
        <ele>910.2</ele>
        <time>2016-07-31T09:33:40Z</time>
      </trkpt>
      <trkpt lat="42.43544" lon="0.05231">
        <ele>910.8</ele>
        <time>2016-07-31T09:33:42Z</time>
      </trkpt>
      <trkpt lat="42.43542" lon="0.05227">
        <ele>911</ele>
        <time>2016-07-31T09:33:44Z</time>
      </trkpt>
      <trkpt lat="42.4354" lon="0.05222">
        <ele>911.4</ele>
        <time>2016-07-31T09:33:46Z</time>
      </trkpt>
      <trkpt lat="42.43538" lon="0.05217">
        <ele>912</ele>
        <time>2016-07-31T09:33:48Z</time>
      </trkpt>
      <trkpt lat="42.43537" lon="0.05213">
        <ele>912.5</ele>
        <time>2016-07-31T09:33:50Z</time>
      </trkpt>
      <trkpt lat="42.43535" lon="0.05208">
        <ele>913.1</ele>
        <time>2016-07-31T09:33:52Z</time>
      </trkpt>
      <trkpt lat="42.43533" lon="0.05204">
        <ele>913.9</ele>
        <time>2016-07-31T09:33:54Z</time>
      </trkpt>
      <trkpt lat="42.43531" lon="0.052">
        <ele>914.6</ele>
        <time>2016-07-31T09:33:56Z</time>
      </trkpt>
      <trkpt lat="42.43529" lon="0.05195">
        <ele>915.5</ele>
        <time>2016-07-31T09:33:58Z</time>
      </trkpt>
      <trkpt lat="42.43527" lon="0.05191">
        <ele>916.4</ele>
        <time>2016-07-31T09:34:00Z</time>
      </trkpt>
      <trkpt lat="42.43525" lon="0.05187">
        <ele>917.4</ele>
        <time>2016-07-31T09:34:02Z</time>
      </trkpt>
      <trkpt lat="42.43524" lon="0.05182">
        <ele>918.4</ele>
        <time>2016-07-31T09:34:04Z</time>
      </trkpt>
      <trkpt lat="42.43522" lon="0.05177">
        <ele>919.5</ele>
        <time>2016-07-31T09:34:06Z</time>
      </trkpt>
      <trkpt lat="42.43521" lon="0.05172">
        <ele>920.5</ele>
        <time>2016-07-31T09:34:08Z</time>
      </trkpt>
      <trkpt lat="42.4352" lon="0.05167">
        <ele>921.7</ele>
        <time>2016-07-31T09:34:10Z</time>
      </trkpt>
      <trkpt lat="42.43519" lon="0.05162">
        <ele>922.8</ele>
        <time>2016-07-31T09:34:12Z</time>
      </trkpt>
      <trkpt lat="42.43517" lon="0.05158">
        <ele>923.6</ele>
        <time>2016-07-31T09:34:14Z</time>
      </trkpt>
      <trkpt lat="42.43514" lon="0.05154">
        <ele>924.3</ele>
        <time>2016-07-31T09:34:16Z</time>
      </trkpt>
      <trkpt lat="42.43511" lon="0.0515">
        <ele>925</ele>
        <time>2016-07-31T09:34:18Z</time>
      </trkpt>
      <trkpt lat="42.43508" lon="0.05148">
        <ele>925.1</ele>
        <time>2016-07-31T09:34:20Z</time>
      </trkpt>
      <trkpt lat="42.43504" lon="0.05147">
        <ele>924.8</ele>
        <time>2016-07-31T09:34:22Z</time>
      </trkpt>
      <trkpt lat="42.43501" lon="0.05145">
        <ele>924.8</ele>
        <time>2016-07-31T09:34:24Z</time>
      </trkpt>
      <trkpt lat="42.43499" lon="0.05142">
        <ele>925.4</ele>
        <time>2016-07-31T09:34:26Z</time>
      </trkpt>
      <trkpt lat="42.43499" lon="0.05138">
        <ele>926.4</ele>
        <time>2016-07-31T09:34:28Z</time>
      </trkpt>
      <trkpt lat="42.435" lon="0.05134">
        <ele>927.6</ele>
        <time>2016-07-31T09:34:30Z</time>
      </trkpt>
      <trkpt lat="42.43503" lon="0.05133">
        <ele>928.3</ele>
        <time>2016-07-31T09:34:32Z</time>
      </trkpt>
      <trkpt lat="42.43507" lon="0.05134">
        <ele>928.7</ele>
        <time>2016-07-31T09:34:35Z</time>
      </trkpt>
      <trkpt lat="42.43511" lon="0.05137">
        <ele>928.4</ele>
        <time>2016-07-31T09:34:37Z</time>
      </trkpt>
      <trkpt lat="42.43515" lon="0.05141">
        <ele>928.1</ele>
        <time>2016-07-31T09:34:39Z</time>
      </trkpt>
      <trkpt lat="42.43519" lon="0.05144">
        <ele>927.8</ele>
        <time>2016-07-31T09:34:41Z</time>
      </trkpt>
      <trkpt lat="42.43523" lon="0.05148">
        <ele>927.4</ele>
        <time>2016-07-31T09:34:43Z</time>
      </trkpt>
      <trkpt lat="42.43527" lon="0.05152">
        <ele>926.9</ele>
        <time>2016-07-31T09:34:45Z</time>
      </trkpt>
      <trkpt lat="42.4353" lon="0.05156">
        <ele>926.2</ele>
        <time>2016-07-31T09:34:47Z</time>
      </trkpt>
      <trkpt lat="42.43533" lon="0.0516">
        <ele>925.4</ele>
        <time>2016-07-31T09:34:49Z</time>
      </trkpt>
      <trkpt lat="42.43536" lon="0.05165">
        <ele>924.7</ele>
        <time>2016-07-31T09:34:51Z</time>
      </trkpt>
      <trkpt lat="42.43539" lon="0.05168">
        <ele>924.2</ele>
        <time>2016-07-31T09:34:53Z</time>
      </trkpt>
      <trkpt lat="42.43542" lon="0.05172">
        <ele>923.8</ele>
        <time>2016-07-31T09:34:55Z</time>
      </trkpt>
      <trkpt lat="42.43546" lon="0.05175">
        <ele>923.6</ele>
        <time>2016-07-31T09:34:57Z</time>
      </trkpt>
      <trkpt lat="42.4355" lon="0.05178">
        <ele>923.7</ele>
        <time>2016-07-31T09:34:59Z</time>
      </trkpt>
      <trkpt lat="42.43554" lon="0.05181">
        <ele>923.6</ele>
        <time>2016-07-31T09:35:01Z</time>
      </trkpt>
      <trkpt lat="42.43557" lon="0.05185">
        <ele>923.3</ele>
        <time>2016-07-31T09:35:03Z</time>
      </trkpt>
      <trkpt lat="42.4356" lon="0.05189">
        <ele>923</ele>
        <time>2016-07-31T09:35:05Z</time>
      </trkpt>
      <trkpt lat="42.43564" lon="0.05193">
        <ele>922.8</ele>
        <time>2016-07-31T09:35:07Z</time>
      </trkpt>
      <trkpt lat="42.43567" lon="0.05197">
        <ele>922.4</ele>
        <time>2016-07-31T09:35:09Z</time>
      </trkpt>
      <trkpt lat="42.4357" lon="0.05201">
        <ele>922.1</ele>
        <time>2016-07-31T09:35:11Z</time>
      </trkpt>
      <trkpt lat="42.43573" lon="0.05204">
        <ele>922.3</ele>
        <time>2016-07-31T09:35:13Z</time>
      </trkpt>
      <trkpt lat="42.43577" lon="0.05203">
        <ele>923.4</ele>
        <time>2016-07-31T09:35:15Z</time>
      </trkpt>
      <trkpt lat="42.43581" lon="0.052">
        <ele>924.9</ele>
        <time>2016-07-31T09:35:17Z</time>
      </trkpt>
      <trkpt lat="42.43582" lon="0.05195">
        <ele>926.1</ele>
        <time>2016-07-31T09:35:19Z</time>
      </trkpt>
      <trkpt lat="42.4358" lon="0.05191">
        <ele>926.7</ele>
        <time>2016-07-31T09:35:21Z</time>
      </trkpt>
      <trkpt lat="42.43577" lon="0.05187">
        <ele>926.9</ele>
        <time>2016-07-31T09:35:23Z</time>
      </trkpt>
      <trkpt lat="42.43574" lon="0.05183">
        <ele>927.3</ele>
        <time>2016-07-31T09:35:25Z</time>
      </trkpt>
      <trkpt lat="42.43572" lon="0.05179">
        <ele>927.8</ele>
        <time>2016-07-31T09:35:27Z</time>
      </trkpt>
      <trkpt lat="42.4357" lon="0.05174">
        <ele>928.5</ele>
        <time>2016-07-31T09:35:29Z</time>
      </trkpt>
      <trkpt lat="42.43569" lon="0.05169">
        <ele>929.4</ele>
        <time>2016-07-31T09:35:31Z</time>
      </trkpt>
      <trkpt lat="42.43567" lon="0.05165">
        <ele>930.1</ele>
        <time>2016-07-31T09:35:33Z</time>
      </trkpt>
      <trkpt lat="42.43566" lon="0.05161">
        <ele>930.8</ele>
        <time>2016-07-31T09:35:35Z</time>
      </trkpt>
      <trkpt lat="42.43564" lon="0.05157">
        <ele>931.6</ele>
        <time>2016-07-31T09:35:37Z</time>
      </trkpt>
      <trkpt lat="42.43563" lon="0.05153">
        <ele>932.3</ele>
        <time>2016-07-31T09:35:39Z</time>
      </trkpt>
      <trkpt lat="42.4356" lon="0.05149">
        <ele>932.8</ele>
        <time>2016-07-31T09:35:41Z</time>
      </trkpt>
      <trkpt lat="42.43559" lon="0.05145">
        <ele>933.5</ele>
        <time>2016-07-31T09:35:43Z</time>
      </trkpt>
      <trkpt lat="42.43558" lon="0.05141">
        <ele>934.3</ele>
        <time>2016-07-31T09:35:45Z</time>
      </trkpt>
      <trkpt lat="42.43558" lon="0.05136">
        <ele>935.5</ele>
        <time>2016-07-31T09:35:47Z</time>
      </trkpt>
      <trkpt lat="42.4356" lon="0.05133">
        <ele>936.6</ele>
        <time>2016-07-31T09:35:49Z</time>
      </trkpt>
      <trkpt lat="42.43563" lon="0.05132">
        <ele>937.4</ele>
        <time>2016-07-31T09:35:51Z</time>
      </trkpt>
      <trkpt lat="42.43567" lon="0.05132">
        <ele>937.8</ele>
        <time>2016-07-31T09:35:54Z</time>
      </trkpt>
      <trkpt lat="42.43569" lon="0.05136">
        <ele>937.3</ele>
        <time>2016-07-31T09:35:56Z</time>
      </trkpt>
      <trkpt lat="42.43572" lon="0.05141">
        <ele>936.6</ele>
        <time>2016-07-31T09:35:58Z</time>
      </trkpt>
      <trkpt lat="42.43574" lon="0.05146">
        <ele>935.9</ele>
        <time>2016-07-31T09:36:00Z</time>
      </trkpt>
      <trkpt lat="42.43577" lon="0.0515">
        <ele>935.3</ele>
        <time>2016-07-31T09:36:02Z</time>
      </trkpt>
      <trkpt lat="42.43579" lon="0.05155">
        <ele>934.8</ele>
        <time>2016-07-31T09:36:04Z</time>
      </trkpt>
      <trkpt lat="42.43583" lon="0.05158">
        <ele>934.4</ele>
        <time>2016-07-31T09:36:06Z</time>
      </trkpt>
      <trkpt lat="42.43586" lon="0.05162">
        <ele>934.3</ele>
        <time>2016-07-31T09:36:08Z</time>
      </trkpt>
      <trkpt lat="42.43589" lon="0.05165">
        <ele>934.1</ele>
        <time>2016-07-31T09:36:10Z</time>
      </trkpt>
      <trkpt lat="42.43592" lon="0.05168">
        <ele>934.1</ele>
        <time>2016-07-31T09:36:12Z</time>
      </trkpt>
      <trkpt lat="42.43596" lon="0.0517">
        <ele>934.4</ele>
        <time>2016-07-31T09:36:14Z</time>
      </trkpt>
      <trkpt lat="42.43599" lon="0.05172">
        <ele>934.6</ele>
        <time>2016-07-31T09:36:16Z</time>
      </trkpt>
      <trkpt lat="42.43603" lon="0.05173">
        <ele>935</ele>
        <time>2016-07-31T09:36:18Z</time>
      </trkpt>
      <trkpt lat="42.43607" lon="0.05175">
        <ele>935.5</ele>
        <time>2016-07-31T09:36:20Z</time>
      </trkpt>
      <trkpt lat="42.43611" lon="0.05175">
        <ele>936.2</ele>
        <time>2016-07-31T09:36:22Z</time>
      </trkpt>
      <trkpt lat="42.43615" lon="0.05175">
        <ele>937</ele>
        <time>2016-07-31T09:36:24Z</time>
      </trkpt>
      <trkpt lat="42.43619" lon="0.05175">
        <ele>937.9</ele>
        <time>2016-07-31T09:36:26Z</time>
      </trkpt>
      <trkpt lat="42.43623" lon="0.05175">
        <ele>938.8</ele>
        <time>2016-07-31T09:36:28Z</time>
      </trkpt>
      <trkpt lat="42.43628" lon="0.05174">
        <ele>939.5</ele>
        <time>2016-07-31T09:36:30Z</time>
      </trkpt>
      <trkpt lat="42.43632" lon="0.05173">
        <ele>940.1</ele>
        <time>2016-07-31T09:36:32Z</time>
      </trkpt>
      <trkpt lat="42.43636" lon="0.05172">
        <ele>940.7</ele>
        <time>2016-07-31T09:36:34Z</time>
      </trkpt>
      <trkpt lat="42.4364" lon="0.05171">
        <ele>941.3</ele>
        <time>2016-07-31T09:36:36Z</time>
      </trkpt>
      <trkpt lat="42.43643" lon="0.05169">
        <ele>942.1</ele>
        <time>2016-07-31T09:36:38Z</time>
      </trkpt>
      <trkpt lat="42.43646" lon="0.05166">
        <ele>943.1</ele>
        <time>2016-07-31T09:36:40Z</time>
      </trkpt>
      <trkpt lat="42.43647" lon="0.05162">
        <ele>943.9</ele>
        <time>2016-07-31T09:36:42Z</time>
      </trkpt>
      <trkpt lat="42.43646" lon="0.05158">
        <ele>944.7</ele>
        <time>2016-07-31T09:36:44Z</time>
      </trkpt>
      <trkpt lat="42.43645" lon="0.05153">
        <ele>945.5</ele>
        <time>2016-07-31T09:36:46Z</time>
      </trkpt>
      <trkpt lat="42.43643" lon="0.05149">
        <ele>946</ele>
        <time>2016-07-31T09:36:48Z</time>
      </trkpt>
      <trkpt lat="42.4364" lon="0.05147">
        <ele>946.1</ele>
        <time>2016-07-31T09:36:50Z</time>
      </trkpt>
      <trkpt lat="42.43637" lon="0.05145">
        <ele>946</ele>
        <time>2016-07-31T09:36:52Z</time>
      </trkpt>
      <trkpt lat="42.43634" lon="0.05143">
        <ele>945.9</ele>
        <time>2016-07-31T09:36:54Z</time>
      </trkpt>
      <trkpt lat="42.43631" lon="0.05142">
        <ele>945.7</ele>
        <time>2016-07-31T09:36:56Z</time>
      </trkpt>
      <trkpt lat="42.43627" lon="0.05141">
        <ele>945.5</ele>
        <time>2016-07-31T09:36:58Z</time>
      </trkpt>
      <trkpt lat="42.43624" lon="0.05139">
        <ele>945.4</ele>
        <time>2016-07-31T09:37:00Z</time>
      </trkpt>
      <trkpt lat="42.43622" lon="0.05136">
        <ele>945.5</ele>
        <time>2016-07-31T09:37:02Z</time>
      </trkpt>
      <trkpt lat="42.43619" lon="0.05133">
        <ele>945.6</ele>
        <time>2016-07-31T09:37:04Z</time>
      </trkpt>
      <trkpt lat="42.43617" lon="0.0513">
        <ele>945.8</ele>
        <time>2016-07-31T09:37:06Z</time>
      </trkpt>
      <trkpt lat="42.43615" lon="0.05127">
        <ele>946.1</ele>
        <time>2016-07-31T09:37:08Z</time>
      </trkpt>
      <trkpt lat="42.43613" lon="0.05124">
        <ele>946.5</ele>
        <time>2016-07-31T09:37:10Z</time>
      </trkpt>
      <trkpt lat="42.4361" lon="0.05121">
        <ele>946.9</ele>
        <time>2016-07-31T09:37:12Z</time>
      </trkpt>
      <trkpt lat="42.43608" lon="0.05118">
        <ele>947.4</ele>
        <time>2016-07-31T09:37:14Z</time>
      </trkpt>
      <trkpt lat="42.43606" lon="0.05115">
        <ele>947.8</ele>
        <time>2016-07-31T09:37:16Z</time>
      </trkpt>
      <trkpt lat="42.43603" lon="0.05113">
        <ele>948.1</ele>
        <time>2016-07-31T09:37:18Z</time>
      </trkpt>
      <trkpt lat="42.43601" lon="0.0511">
        <ele>948.5</ele>
        <time>2016-07-31T09:37:20Z</time>
      </trkpt>
      <trkpt lat="42.43598" lon="0.05107">
        <ele>949</ele>
        <time>2016-07-31T09:37:22Z</time>
      </trkpt>
      <trkpt lat="42.43596" lon="0.05103">
        <ele>949.5</ele>
        <time>2016-07-31T09:37:24Z</time>
      </trkpt>
      <trkpt lat="42.43592" lon="0.05099">
        <ele>950.2</ele>
        <time>2016-07-31T09:37:26Z</time>
      </trkpt>
      <trkpt lat="42.43588" lon="0.05095">
        <ele>950.8</ele>
        <time>2016-07-31T09:37:28Z</time>
      </trkpt>
      <trkpt lat="42.43585" lon="0.05091">
        <ele>951.5</ele>
        <time>2016-07-31T09:37:30Z</time>
      </trkpt>
      <trkpt lat="42.43582" lon="0.05087">
        <ele>952.2</ele>
        <time>2016-07-31T09:37:32Z</time>
      </trkpt>
      <trkpt lat="42.43579" lon="0.05083">
        <ele>952.8</ele>
        <time>2016-07-31T09:37:34Z</time>
      </trkpt>
      <trkpt lat="42.43576" lon="0.05081">
        <ele>953.1</ele>
        <time>2016-07-31T09:37:36Z</time>
      </trkpt>
      <trkpt lat="42.43574" lon="0.05078">
        <ele>953.6</ele>
        <time>2016-07-31T09:37:38Z</time>
      </trkpt>
      <trkpt lat="42.43572" lon="0.05074">
        <ele>954.2</ele>
        <time>2016-07-31T09:37:40Z</time>
      </trkpt>
      <trkpt lat="42.43569" lon="0.05071">
        <ele>954.7</ele>
        <time>2016-07-31T09:37:42Z</time>
      </trkpt>
      <trkpt lat="42.43565" lon="0.05068">
        <ele>955.1</ele>
        <time>2016-07-31T09:37:44Z</time>
      </trkpt>
      <trkpt lat="42.43562" lon="0.05065">
        <ele>955.6</ele>
        <time>2016-07-31T09:37:46Z</time>
      </trkpt>
      <trkpt lat="42.43559" lon="0.05063">
        <ele>955.9</ele>
        <time>2016-07-31T09:37:48Z</time>
      </trkpt>
      <trkpt lat="42.43555" lon="0.0506">
        <ele>956.2</ele>
        <time>2016-07-31T09:37:50Z</time>
      </trkpt>
      <trkpt lat="42.43551" lon="0.05058">
        <ele>956.5</ele>
        <time>2016-07-31T09:37:52Z</time>
      </trkpt>
      <trkpt lat="42.43548" lon="0.05055">
        <ele>957</ele>
        <time>2016-07-31T09:37:54Z</time>
      </trkpt>
      <trkpt lat="42.43544" lon="0.05052">
        <ele>957.4</ele>
        <time>2016-07-31T09:37:56Z</time>
      </trkpt>
      <trkpt lat="42.4354" lon="0.05049">
        <ele>957.6</ele>
        <time>2016-07-31T09:37:58Z</time>
      </trkpt>
      <trkpt lat="42.43536" lon="0.05047">
        <ele>957.7</ele>
        <time>2016-07-31T09:38:00Z</time>
      </trkpt>
      <trkpt lat="42.43532" lon="0.05045">
        <ele>957.9</ele>
        <time>2016-07-31T09:38:02Z</time>
      </trkpt>
      <trkpt lat="42.43529" lon="0.05043">
        <ele>958.1</ele>
        <time>2016-07-31T09:38:04Z</time>
      </trkpt>
      <trkpt lat="42.43526" lon="0.0504">
        <ele>958.3</ele>
        <time>2016-07-31T09:38:06Z</time>
      </trkpt>
      <trkpt lat="42.43522" lon="0.05038">
        <ele>958.4</ele>
        <time>2016-07-31T09:38:08Z</time>
      </trkpt>
      <trkpt lat="42.43518" lon="0.05036">
        <ele>958.5</ele>
        <time>2016-07-31T09:38:10Z</time>
      </trkpt>
      <trkpt lat="42.43515" lon="0.05034">
        <ele>958.6</ele>
        <time>2016-07-31T09:38:12Z</time>
      </trkpt>
      <trkpt lat="42.43511" lon="0.05032">
        <ele>958.6</ele>
        <time>2016-07-31T09:38:14Z</time>
      </trkpt>
      <trkpt lat="42.43507" lon="0.0503">
        <ele>958.8</ele>
        <time>2016-07-31T09:38:16Z</time>
      </trkpt>
      <trkpt lat="42.43503" lon="0.05028">
        <ele>959</ele>
        <time>2016-07-31T09:38:18Z</time>
      </trkpt>
      <trkpt lat="42.435" lon="0.05026">
        <ele>959.3</ele>
        <time>2016-07-31T09:38:20Z</time>
      </trkpt>
      <trkpt lat="42.43497" lon="0.05023">
        <ele>959.6</ele>
        <time>2016-07-31T09:38:22Z</time>
      </trkpt>
      <trkpt lat="42.43493" lon="0.05021">
        <ele>959.8</ele>
        <time>2016-07-31T09:38:24Z</time>
      </trkpt>
      <trkpt lat="42.4349" lon="0.05019">
        <ele>960.1</ele>
        <time>2016-07-31T09:38:26Z</time>
      </trkpt>
      <trkpt lat="42.43487" lon="0.05017">
        <ele>960.4</ele>
        <time>2016-07-31T09:38:28Z</time>
      </trkpt>
      <trkpt lat="42.43484" lon="0.05014">
        <ele>960.8</ele>
        <time>2016-07-31T09:38:30Z</time>
      </trkpt>
      <trkpt lat="42.43481" lon="0.05012">
        <ele>961.2</ele>
        <time>2016-07-31T09:38:32Z</time>
      </trkpt>
      <trkpt lat="42.43478" lon="0.05009">
        <ele>961.5</ele>
        <time>2016-07-31T09:38:34Z</time>
      </trkpt>
      <trkpt lat="42.43475" lon="0.05007">
        <ele>961.9</ele>
        <time>2016-07-31T09:38:36Z</time>
      </trkpt>
      <trkpt lat="42.43473" lon="0.05005">
        <ele>962.2</ele>
        <time>2016-07-31T09:38:38Z</time>
      </trkpt>
      <trkpt lat="42.4347" lon="0.05003">
        <ele>962.5</ele>
        <time>2016-07-31T09:38:40Z</time>
      </trkpt>
      <trkpt lat="42.43468" lon="0.05001">
        <ele>962.8</ele>
        <time>2016-07-31T09:38:42Z</time>
      </trkpt>
      <trkpt lat="42.43464" lon="0.04999">
        <ele>963.1</ele>
        <time>2016-07-31T09:38:44Z</time>
      </trkpt>
      <trkpt lat="42.43462" lon="0.04996">
        <ele>963.6</ele>
        <time>2016-07-31T09:38:46Z</time>
      </trkpt>
      <trkpt lat="42.43459" lon="0.04993">
        <ele>964.2</ele>
        <time>2016-07-31T09:38:48Z</time>
      </trkpt>
      <trkpt lat="42.43456" lon="0.04991">
        <ele>964.6</ele>
        <time>2016-07-31T09:38:50Z</time>
      </trkpt>
      <trkpt lat="42.43454" lon="0.0499">
        <ele>964.7</ele>
        <time>2016-07-31T09:38:52Z</time>
      </trkpt>
      <trkpt lat="42.43451" lon="0.04988">
        <ele>964.9</ele>
        <time>2016-07-31T09:38:54Z</time>
      </trkpt>
      <trkpt lat="42.43448" lon="0.04986">
        <ele>965.3</ele>
        <time>2016-07-31T09:38:56Z</time>
      </trkpt>
      <trkpt lat="42.43445" lon="0.04984">
        <ele>965.6</ele>
        <time>2016-07-31T09:38:58Z</time>
      </trkpt>
      <trkpt lat="42.43442" lon="0.04981">
        <ele>966</ele>
        <time>2016-07-31T09:39:00Z</time>
      </trkpt>
      <trkpt lat="42.43439" lon="0.04978">
        <ele>966.5</ele>
        <time>2016-07-31T09:39:02Z</time>
      </trkpt>
      <trkpt lat="42.43435" lon="0.04976">
        <ele>966.7</ele>
        <time>2016-07-31T09:39:04Z</time>
      </trkpt>
      <trkpt lat="42.43432" lon="0.04975">
        <ele>966.8</ele>
        <time>2016-07-31T09:39:06Z</time>
      </trkpt>
      <trkpt lat="42.43429" lon="0.04972">
        <ele>967.2</ele>
        <time>2016-07-31T09:39:08Z</time>
      </trkpt>
      <trkpt lat="42.43426" lon="0.0497">
        <ele>967.6</ele>
        <time>2016-07-31T09:39:10Z</time>
      </trkpt>
      <trkpt lat="42.43423" lon="0.04968">
        <ele>967.9</ele>
        <time>2016-07-31T09:39:12Z</time>
      </trkpt>
      <trkpt lat="42.4342" lon="0.04965">
        <ele>968.2</ele>
        <time>2016-07-31T09:39:14Z</time>
      </trkpt>
      <trkpt lat="42.43417" lon="0.04963">
        <ele>968.5</ele>
        <time>2016-07-31T09:39:16Z</time>
      </trkpt>
      <trkpt lat="42.43414" lon="0.04961">
        <ele>968.8</ele>
        <time>2016-07-31T09:39:18Z</time>
      </trkpt>
      <trkpt lat="42.43412" lon="0.04959">
        <ele>969.3</ele>
        <time>2016-07-31T09:39:20Z</time>
      </trkpt>
      <trkpt lat="42.43409" lon="0.04957">
        <ele>969.5</ele>
        <time>2016-07-31T09:39:22Z</time>
      </trkpt>
      <trkpt lat="42.43406" lon="0.04955">
        <ele>969.6</ele>
        <time>2016-07-31T09:39:24Z</time>
      </trkpt>
      <trkpt lat="42.43403" lon="0.04952">
        <ele>969.9</ele>
        <time>2016-07-31T09:39:26Z</time>
      </trkpt>
      <trkpt lat="42.434" lon="0.04949">
        <ele>970.3</ele>
        <time>2016-07-31T09:39:28Z</time>
      </trkpt>
      <trkpt lat="42.43397" lon="0.04947">
        <ele>970.6</ele>
        <time>2016-07-31T09:39:30Z</time>
      </trkpt>
      <trkpt lat="42.43394" lon="0.04944">
        <ele>971</ele>
        <time>2016-07-31T09:39:32Z</time>
      </trkpt>
      <trkpt lat="42.43391" lon="0.04941">
        <ele>971.3</ele>
        <time>2016-07-31T09:39:34Z</time>
      </trkpt>
      <trkpt lat="42.43388" lon="0.04938">
        <ele>971.7</ele>
        <time>2016-07-31T09:39:36Z</time>
      </trkpt>
      <trkpt lat="42.43385" lon="0.04935">
        <ele>972</ele>
        <time>2016-07-31T09:39:38Z</time>
      </trkpt>
      <trkpt lat="42.43382" lon="0.04933">
        <ele>972.3</ele>
        <time>2016-07-31T09:39:40Z</time>
      </trkpt>
      <trkpt lat="42.43378" lon="0.0493">
        <ele>972.5</ele>
        <time>2016-07-31T09:39:42Z</time>
      </trkpt>
      <trkpt lat="42.43375" lon="0.04928">
        <ele>972.7</ele>
        <time>2016-07-31T09:39:44Z</time>
      </trkpt>
      <trkpt lat="42.43372" lon="0.04926">
        <ele>972.5</ele>
        <time>2016-07-31T09:39:46Z</time>
      </trkpt>
      <trkpt lat="42.43369" lon="0.04924">
        <ele>972.4</ele>
        <time>2016-07-31T09:39:48Z</time>
      </trkpt>
      <trkpt lat="42.43365" lon="0.04922">
        <ele>972.2</ele>
        <time>2016-07-31T09:39:50Z</time>
      </trkpt>
      <trkpt lat="42.43362" lon="0.0492">
        <ele>971.9</ele>
        <time>2016-07-31T09:39:52Z</time>
      </trkpt>
      <trkpt lat="42.43359" lon="0.04919">
        <ele>971.7</ele>
        <time>2016-07-31T09:39:54Z</time>
      </trkpt>
      <trkpt lat="42.43355" lon="0.04916">
        <ele>971.5</ele>
        <time>2016-07-31T09:39:56Z</time>
      </trkpt>
      <trkpt lat="42.43351" lon="0.04915">
        <ele>971.2</ele>
        <time>2016-07-31T09:39:58Z</time>
      </trkpt>
      <trkpt lat="42.43348" lon="0.04913">
        <ele>970.9</ele>
        <time>2016-07-31T09:40:00Z</time>
      </trkpt>
      <trkpt lat="42.43345" lon="0.04911">
        <ele>970.6</ele>
        <time>2016-07-31T09:40:02Z</time>
      </trkpt>
      <trkpt lat="42.43341" lon="0.04909">
        <ele>970.3</ele>
        <time>2016-07-31T09:40:04Z</time>
      </trkpt>
      <trkpt lat="42.43337" lon="0.04907">
        <ele>970</ele>
        <time>2016-07-31T09:40:06Z</time>
      </trkpt>
      <trkpt lat="42.43334" lon="0.04905">
        <ele>969.8</ele>
        <time>2016-07-31T09:40:08Z</time>
      </trkpt>
      <trkpt lat="42.4333" lon="0.04903">
        <ele>969.5</ele>
        <time>2016-07-31T09:40:10Z</time>
      </trkpt>
      <trkpt lat="42.43326" lon="0.049">
        <ele>969.2</ele>
        <time>2016-07-31T09:40:12Z</time>
      </trkpt>
      <trkpt lat="42.43323" lon="0.04898">
        <ele>969.1</ele>
        <time>2016-07-31T09:40:14Z</time>
      </trkpt>
      <trkpt lat="42.4332" lon="0.04895">
        <ele>969.1</ele>
        <time>2016-07-31T09:40:16Z</time>
      </trkpt>
      <trkpt lat="42.43317" lon="0.04891">
        <ele>969.2</ele>
        <time>2016-07-31T09:40:18Z</time>
      </trkpt>
      <trkpt lat="42.43314" lon="0.04888">
        <ele>969.3</ele>
        <time>2016-07-31T09:40:20Z</time>
      </trkpt>
      <trkpt lat="42.43311" lon="0.04885">
        <ele>969.3</ele>
        <time>2016-07-31T09:40:22Z</time>
      </trkpt>
      <trkpt lat="42.43308" lon="0.04881">
        <ele>969.5</ele>
        <time>2016-07-31T09:40:24Z</time>
      </trkpt>
      <trkpt lat="42.43306" lon="0.04877">
        <ele>969.7</ele>
        <time>2016-07-31T09:40:26Z</time>
      </trkpt>
      <trkpt lat="42.43303" lon="0.04874">
        <ele>969.8</ele>
        <time>2016-07-31T09:40:28Z</time>
      </trkpt>
      <trkpt lat="42.433" lon="0.0487">
        <ele>970</ele>
        <time>2016-07-31T09:40:30Z</time>
      </trkpt>
      <trkpt lat="42.43297" lon="0.04866">
        <ele>970.4</ele>
        <time>2016-07-31T09:40:32Z</time>
      </trkpt>
      <trkpt lat="42.43294" lon="0.04862">
        <ele>970.7</ele>
        <time>2016-07-31T09:40:34Z</time>
      </trkpt>
      <trkpt lat="42.43291" lon="0.04858">
        <ele>970.9</ele>
        <time>2016-07-31T09:40:36Z</time>
      </trkpt>
      <trkpt lat="42.43288" lon="0.04855">
        <ele>971.4</ele>
        <time>2016-07-31T09:40:38Z</time>
      </trkpt>
      <trkpt lat="42.43284" lon="0.04851">
        <ele>971.9</ele>
        <time>2016-07-31T09:40:40Z</time>
      </trkpt>
      <trkpt lat="42.43281" lon="0.04847">
        <ele>972.6</ele>
        <time>2016-07-31T09:40:42Z</time>
      </trkpt>
      <trkpt lat="42.4328" lon="0.04842">
        <ele>973.6</ele>
        <time>2016-07-31T09:40:44Z</time>
      </trkpt>
      <trkpt lat="42.43281" lon="0.04837">
        <ele>974.8</ele>
        <time>2016-07-31T09:40:46Z</time>
      </trkpt>
      <trkpt lat="42.43285" lon="0.04835">
        <ele>975.7</ele>
        <time>2016-07-31T09:40:48Z</time>
      </trkpt>
      <trkpt lat="42.4329" lon="0.04837">
        <ele>975.8</ele>
        <time>2016-07-31T09:40:50Z</time>
      </trkpt>
      <trkpt lat="42.43293" lon="0.04841">
        <ele>975.5</ele>
        <time>2016-07-31T09:40:52Z</time>
      </trkpt>
      <trkpt lat="42.43297" lon="0.04845">
        <ele>975.2</ele>
        <time>2016-07-31T09:40:54Z</time>
      </trkpt>
      <trkpt lat="42.433" lon="0.0485">
        <ele>975</ele>
        <time>2016-07-31T09:40:56Z</time>
      </trkpt>
      <trkpt lat="42.43304" lon="0.04853">
        <ele>974.9</ele>
        <time>2016-07-31T09:40:58Z</time>
      </trkpt>
      <trkpt lat="42.43308" lon="0.04857">
        <ele>974.9</ele>
        <time>2016-07-31T09:41:00Z</time>
      </trkpt>
      <trkpt lat="42.43312" lon="0.04861">
        <ele>974.9</ele>
        <time>2016-07-31T09:41:02Z</time>
      </trkpt>
      <trkpt lat="42.43315" lon="0.04864">
        <ele>974.9</ele>
        <time>2016-07-31T09:41:04Z</time>
      </trkpt>
      <trkpt lat="42.43318" lon="0.04866">
        <ele>975.1</ele>
        <time>2016-07-31T09:41:06Z</time>
      </trkpt>
      <trkpt lat="42.43321" lon="0.04869">
        <ele>975.3</ele>
        <time>2016-07-31T09:41:09Z</time>
      </trkpt>
      <trkpt lat="42.43325" lon="0.0487">
        <ele>975.6</ele>
        <time>2016-07-31T09:41:11Z</time>
      </trkpt>
      <trkpt lat="42.43328" lon="0.04872">
        <ele>975.8</ele>
        <time>2016-07-31T09:41:13Z</time>
      </trkpt>
      <trkpt lat="42.43331" lon="0.04874">
        <ele>976.2</ele>
        <time>2016-07-31T09:41:15Z</time>
      </trkpt>
      <trkpt lat="42.43334" lon="0.04875">
        <ele>976.6</ele>
        <time>2016-07-31T09:41:17Z</time>
      </trkpt>
      <trkpt lat="42.43337" lon="0.04876">
        <ele>977.2</ele>
        <time>2016-07-31T09:41:19Z</time>
      </trkpt>
      <trkpt lat="42.43341" lon="0.04877">
        <ele>977.8</ele>
        <time>2016-07-31T09:41:21Z</time>
      </trkpt>
      <trkpt lat="42.43345" lon="0.04877">
        <ele>978.6</ele>
        <time>2016-07-31T09:41:23Z</time>
      </trkpt>
      <trkpt lat="42.43348" lon="0.04876">
        <ele>979.6</ele>
        <time>2016-07-31T09:41:25Z</time>
      </trkpt>
      <trkpt lat="42.43352" lon="0.04876">
        <ele>980.5</ele>
        <time>2016-07-31T09:41:27Z</time>
      </trkpt>
      <trkpt lat="42.43356" lon="0.04875">
        <ele>981.6</ele>
        <time>2016-07-31T09:41:29Z</time>
      </trkpt>
      <trkpt lat="42.43359" lon="0.04874">
        <ele>982.6</ele>
        <time>2016-07-31T09:41:31Z</time>
      </trkpt>
      <trkpt lat="42.43363" lon="0.04873">
        <ele>983.6</ele>
        <time>2016-07-31T09:41:33Z</time>
      </trkpt>
      <trkpt lat="42.43367" lon="0.04873">
        <ele>984.6</ele>
        <time>2016-07-31T09:41:35Z</time>
      </trkpt>
      <trkpt lat="42.4337" lon="0.04873">
        <ele>985.5</ele>
        <time>2016-07-31T09:41:37Z</time>
      </trkpt>
      <trkpt lat="42.43374" lon="0.04873">
        <ele>986.3</ele>
        <time>2016-07-31T09:41:39Z</time>
      </trkpt>
      <trkpt lat="42.43378" lon="0.04873">
        <ele>986.8</ele>
        <time>2016-07-31T09:41:41Z</time>
      </trkpt>
      <trkpt lat="42.43381" lon="0.04874">
        <ele>987.1</ele>
        <time>2016-07-31T09:41:43Z</time>
      </trkpt>
      <trkpt lat="42.43385" lon="0.04874">
        <ele>987.4</ele>
        <time>2016-07-31T09:41:45Z</time>
      </trkpt>
      <trkpt lat="42.43388" lon="0.04874">
        <ele>987.8</ele>
        <time>2016-07-31T09:41:47Z</time>
      </trkpt>
      <trkpt lat="42.43392" lon="0.04874">
        <ele>988.2</ele>
        <time>2016-07-31T09:41:49Z</time>
      </trkpt>
      <trkpt lat="42.43396" lon="0.04875">
        <ele>988.5</ele>
        <time>2016-07-31T09:41:51Z</time>
      </trkpt>
      <trkpt lat="42.434" lon="0.04876">
        <ele>988.8</ele>
        <time>2016-07-31T09:41:53Z</time>
      </trkpt>
      <trkpt lat="42.43403" lon="0.04876">
        <ele>989</ele>
        <time>2016-07-31T09:41:55Z</time>
      </trkpt>
      <trkpt lat="42.43406" lon="0.04877">
        <ele>989.2</ele>
        <time>2016-07-31T09:41:57Z</time>
      </trkpt>
      <trkpt lat="42.4341" lon="0.04878">
        <ele>989.5</ele>
        <time>2016-07-31T09:41:59Z</time>
      </trkpt>
      <trkpt lat="42.43414" lon="0.04879">
        <ele>989.7</ele>
        <time>2016-07-31T09:42:01Z</time>
      </trkpt>
      <trkpt lat="42.43418" lon="0.04879">
        <ele>990.1</ele>
        <time>2016-07-31T09:42:03Z</time>
      </trkpt>
      <trkpt lat="42.43422" lon="0.0488">
        <ele>990.5</ele>
        <time>2016-07-31T09:42:05Z</time>
      </trkpt>
      <trkpt lat="42.43425" lon="0.0488">
        <ele>990.8</ele>
        <time>2016-07-31T09:42:07Z</time>
      </trkpt>
      <trkpt lat="42.43429" lon="0.0488">
        <ele>991.3</ele>
        <time>2016-07-31T09:42:09Z</time>
      </trkpt>
      <trkpt lat="42.43432" lon="0.0488">
        <ele>991.6</ele>
        <time>2016-07-31T09:42:11Z</time>
      </trkpt>
      <trkpt lat="42.43436" lon="0.04882">
        <ele>991.6</ele>
        <time>2016-07-31T09:42:13Z</time>
      </trkpt>
      <trkpt lat="42.43439" lon="0.04881">
        <ele>992</ele>
        <time>2016-07-31T09:42:15Z</time>
      </trkpt>
      <trkpt lat="42.43442" lon="0.04881">
        <ele>992.5</ele>
        <time>2016-07-31T09:42:17Z</time>
      </trkpt>
      <trkpt lat="42.43446" lon="0.04881">
        <ele>992.9</ele>
        <time>2016-07-31T09:42:19Z</time>
      </trkpt>
      <trkpt lat="42.4345" lon="0.04882">
        <ele>993.3</ele>
        <time>2016-07-31T09:42:21Z</time>
      </trkpt>
      <trkpt lat="42.43454" lon="0.04882">
        <ele>993.7</ele>
        <time>2016-07-31T09:42:23Z</time>
      </trkpt>
      <trkpt lat="42.43458" lon="0.04883">
        <ele>994.1</ele>
        <time>2016-07-31T09:42:25Z</time>
      </trkpt>
      <trkpt lat="42.43462" lon="0.04883">
        <ele>994.2</ele>
        <time>2016-07-31T09:42:27Z</time>
      </trkpt>
      <trkpt lat="42.43466" lon="0.04883">
        <ele>994.5</ele>
        <time>2016-07-31T09:42:29Z</time>
      </trkpt>
      <trkpt lat="42.43469" lon="0.04884">
        <ele>994.7</ele>
        <time>2016-07-31T09:42:31Z</time>
      </trkpt>
      <trkpt lat="42.43473" lon="0.04884">
        <ele>994.9</ele>
        <time>2016-07-31T09:42:33Z</time>
      </trkpt>
      <trkpt lat="42.43477" lon="0.04885">
        <ele>995</ele>
        <time>2016-07-31T09:42:35Z</time>
      </trkpt>
      <trkpt lat="42.4348" lon="0.04885">
        <ele>995.1</ele>
        <time>2016-07-31T09:42:37Z</time>
      </trkpt>
      <trkpt lat="42.43484" lon="0.04886">
        <ele>995.3</ele>
        <time>2016-07-31T09:42:39Z</time>
      </trkpt>
      <trkpt lat="42.43488" lon="0.04887">
        <ele>995.4</ele>
        <time>2016-07-31T09:42:41Z</time>
      </trkpt>
      <trkpt lat="42.43492" lon="0.04887">
        <ele>995.5</ele>
        <time>2016-07-31T09:42:43Z</time>
      </trkpt>
      <trkpt lat="42.43496" lon="0.04888">
        <ele>995.7</ele>
        <time>2016-07-31T09:42:45Z</time>
      </trkpt>
      <trkpt lat="42.435" lon="0.04889">
        <ele>995.8</ele>
        <time>2016-07-31T09:42:47Z</time>
      </trkpt>
      <trkpt lat="42.43503" lon="0.04889">
        <ele>995.9</ele>
        <time>2016-07-31T09:42:49Z</time>
      </trkpt>
      <trkpt lat="42.43507" lon="0.0489">
        <ele>996</ele>
        <time>2016-07-31T09:42:51Z</time>
      </trkpt>
      <trkpt lat="42.43512" lon="0.04891">
        <ele>996.2</ele>
        <time>2016-07-31T09:42:53Z</time>
      </trkpt>
      <trkpt lat="42.43515" lon="0.04891">
        <ele>996.4</ele>
        <time>2016-07-31T09:42:55Z</time>
      </trkpt>
      <trkpt lat="42.43519" lon="0.04892">
        <ele>996.6</ele>
        <time>2016-07-31T09:42:57Z</time>
      </trkpt>
      <trkpt lat="42.43522" lon="0.04892">
        <ele>996.8</ele>
        <time>2016-07-31T09:42:59Z</time>
      </trkpt>
      <trkpt lat="42.43526" lon="0.04892">
        <ele>997</ele>
        <time>2016-07-31T09:43:01Z</time>
      </trkpt>
      <trkpt lat="42.43529" lon="0.04893">
        <ele>997.2</ele>
        <time>2016-07-31T09:43:03Z</time>
      </trkpt>
      <trkpt lat="42.43532" lon="0.04893">
        <ele>997.4</ele>
        <time>2016-07-31T09:43:05Z</time>
      </trkpt>
      <trkpt lat="42.43536" lon="0.04893">
        <ele>997.6</ele>
        <time>2016-07-31T09:43:07Z</time>
      </trkpt>
      <trkpt lat="42.4354" lon="0.04894">
        <ele>997.8</ele>
        <time>2016-07-31T09:43:09Z</time>
      </trkpt>
      <trkpt lat="42.43543" lon="0.04894">
        <ele>997.5</ele>
        <time>2016-07-31T09:43:11Z</time>
      </trkpt>
      <trkpt lat="42.43547" lon="0.04894">
        <ele>996.7</ele>
        <time>2016-07-31T09:43:13Z</time>
      </trkpt>
      <trkpt lat="42.4355" lon="0.04895">
        <ele>995.8</ele>
        <time>2016-07-31T09:43:15Z</time>
      </trkpt>
      <trkpt lat="42.43554" lon="0.04896">
        <ele>994.9</ele>
        <time>2016-07-31T09:43:17Z</time>
      </trkpt>
      <trkpt lat="42.43557" lon="0.04896">
        <ele>994</ele>
        <time>2016-07-31T09:43:19Z</time>
      </trkpt>
      <trkpt lat="42.43561" lon="0.04897">
        <ele>993.1</ele>
        <time>2016-07-31T09:43:21Z</time>
      </trkpt>
      <trkpt lat="42.43564" lon="0.04897">
        <ele>992.4</ele>
        <time>2016-07-31T09:43:23Z</time>
      </trkpt>
      <trkpt lat="42.43568" lon="0.04895">
        <ele>991.8</ele>
        <time>2016-07-31T09:43:25Z</time>
      </trkpt>
      <trkpt lat="42.4357" lon="0.04892">
        <ele>991.7</ele>
        <time>2016-07-31T09:43:27Z</time>
      </trkpt>
      <trkpt lat="42.43571" lon="0.04888">
        <ele>991.8</ele>
        <time>2016-07-31T09:43:29Z</time>
      </trkpt>
      <trkpt lat="42.4357" lon="0.04883">
        <ele>992.7</ele>
        <time>2016-07-31T09:43:32Z</time>
      </trkpt>
      <trkpt lat="42.43566" lon="0.04882">
        <ele>993.9</ele>
        <time>2016-07-31T09:43:34Z</time>
      </trkpt>
      <trkpt lat="42.43561" lon="0.04883">
        <ele>995.1</ele>
        <time>2016-07-31T09:43:36Z</time>
      </trkpt>
      <trkpt lat="42.43557" lon="0.04881">
        <ele>996.4</ele>
        <time>2016-07-31T09:43:38Z</time>
      </trkpt>
      <trkpt lat="42.43553" lon="0.04879">
        <ele>997.9</ele>
        <time>2016-07-31T09:43:40Z</time>
      </trkpt>
      <trkpt lat="42.43549" lon="0.04877">
        <ele>999.3</ele>
        <time>2016-07-31T09:43:42Z</time>
      </trkpt>
      <trkpt lat="42.43545" lon="0.04875">
        <ele>1000.9</ele>
        <time>2016-07-31T09:43:44Z</time>
      </trkpt>
      <trkpt lat="42.43542" lon="0.04874">
        <ele>1001.9</ele>
        <time>2016-07-31T09:43:46Z</time>
      </trkpt>
      <trkpt lat="42.43538" lon="0.04872">
        <ele>1001.6</ele>
        <time>2016-07-31T09:43:48Z</time>
      </trkpt>
      <trkpt lat="42.43534" lon="0.0487">
        <ele>1001.4</ele>
        <time>2016-07-31T09:43:50Z</time>
      </trkpt>
      <trkpt lat="42.4353" lon="0.04868">
        <ele>1001.2</ele>
        <time>2016-07-31T09:43:52Z</time>
      </trkpt>
      <trkpt lat="42.43527" lon="0.04866">
        <ele>1001</ele>
        <time>2016-07-31T09:43:54Z</time>
      </trkpt>
      <trkpt lat="42.43524" lon="0.04864">
        <ele>1000.9</ele>
        <time>2016-07-31T09:43:56Z</time>
      </trkpt>
      <trkpt lat="42.4352" lon="0.04862">
        <ele>1000.8</ele>
        <time>2016-07-31T09:43:58Z</time>
      </trkpt>
      <trkpt lat="42.43517" lon="0.0486">
        <ele>1000.8</ele>
        <time>2016-07-31T09:44:00Z</time>
      </trkpt>
      <trkpt lat="42.43514" lon="0.04858">
        <ele>1000.8</ele>
        <time>2016-07-31T09:44:02Z</time>
      </trkpt>
      <trkpt lat="42.43512" lon="0.04856">
        <ele>1000.9</ele>
        <time>2016-07-31T09:44:04Z</time>
      </trkpt>
      <trkpt lat="42.43509" lon="0.04854">
        <ele>1001</ele>
        <time>2016-07-31T09:44:06Z</time>
      </trkpt>
      <trkpt lat="42.43506" lon="0.04851">
        <ele>1001.1</ele>
        <time>2016-07-31T09:44:08Z</time>
      </trkpt>
      <trkpt lat="42.43504" lon="0.04848">
        <ele>1001.4</ele>
        <time>2016-07-31T09:44:10Z</time>
      </trkpt>
      <trkpt lat="42.435" lon="0.04845">
        <ele>1001.7</ele>
        <time>2016-07-31T09:44:12Z</time>
      </trkpt>
      <trkpt lat="42.43497" lon="0.04842">
        <ele>1002.1</ele>
        <time>2016-07-31T09:44:14Z</time>
      </trkpt>
      <trkpt lat="42.43493" lon="0.04839">
        <ele>1002.5</ele>
        <time>2016-07-31T09:44:16Z</time>
      </trkpt>
      <trkpt lat="42.4349" lon="0.04836">
        <ele>1003</ele>
        <time>2016-07-31T09:44:18Z</time>
      </trkpt>
      <trkpt lat="42.43487" lon="0.04833">
        <ele>1003.5</ele>
        <time>2016-07-31T09:44:20Z</time>
      </trkpt>
      <trkpt lat="42.43484" lon="0.04829">
        <ele>1004.2</ele>
        <time>2016-07-31T09:44:22Z</time>
      </trkpt>
      <trkpt lat="42.43482" lon="0.04825">
        <ele>1004.9</ele>
        <time>2016-07-31T09:44:24Z</time>
      </trkpt>
      <trkpt lat="42.4348" lon="0.04821">
        <ele>1005.6</ele>
        <time>2016-07-31T09:44:26Z</time>
      </trkpt>
      <trkpt lat="42.43479" lon="0.04817">
        <ele>1006.4</ele>
        <time>2016-07-31T09:44:28Z</time>
      </trkpt>
      <trkpt lat="42.43477" lon="0.04813">
        <ele>1007.2</ele>
        <time>2016-07-31T09:44:30Z</time>
      </trkpt>
      <trkpt lat="42.43475" lon="0.0481">
        <ele>1008.1</ele>
        <time>2016-07-31T09:44:32Z</time>
      </trkpt>
      <trkpt lat="42.43472" lon="0.04806">
        <ele>1008.9</ele>
        <time>2016-07-31T09:44:34Z</time>
      </trkpt>
      <trkpt lat="42.4347" lon="0.04804">
        <ele>1009.8</ele>
        <time>2016-07-31T09:44:36Z</time>
      </trkpt>
      <trkpt lat="42.43468" lon="0.04801">
        <ele>1010.6</ele>
        <time>2016-07-31T09:44:38Z</time>
      </trkpt>
      <trkpt lat="42.43466" lon="0.04798">
        <ele>1011.5</ele>
        <time>2016-07-31T09:44:40Z</time>
      </trkpt>
      <trkpt lat="42.43463" lon="0.04796">
        <ele>1012.3</ele>
        <time>2016-07-31T09:44:42Z</time>
      </trkpt>
      <trkpt lat="42.4346" lon="0.04793">
        <ele>1013.5</ele>
        <time>2016-07-31T09:44:45Z</time>
      </trkpt>
      <trkpt lat="42.43458" lon="0.04791">
        <ele>1013.9</ele>
        <time>2016-07-31T09:44:47Z</time>
      </trkpt>
      <trkpt lat="42.43454" lon="0.04788">
        <ele>1013.7</ele>
        <time>2016-07-31T09:44:50Z</time>
      </trkpt>
      <trkpt lat="42.4345" lon="0.04786">
        <ele>1013.4</ele>
        <time>2016-07-31T09:44:53Z</time>
      </trkpt>
      <trkpt lat="42.43448" lon="0.04785">
        <ele>1013.3</ele>
        <time>2016-07-31T09:44:55Z</time>
      </trkpt>
      <trkpt lat="42.43445" lon="0.04782">
        <ele>1013.2</ele>
        <time>2016-07-31T09:44:57Z</time>
      </trkpt>
      <trkpt lat="42.43442" lon="0.0478">
        <ele>1013.1</ele>
        <time>2016-07-31T09:44:59Z</time>
      </trkpt>
      <trkpt lat="42.4344" lon="0.04778">
        <ele>1013</ele>
        <time>2016-07-31T09:45:01Z</time>
      </trkpt>
      <trkpt lat="42.43437" lon="0.04775">
        <ele>1013</ele>
        <time>2016-07-31T09:45:03Z</time>
      </trkpt>
      <trkpt lat="42.43434" lon="0.04773">
        <ele>1013</ele>
        <time>2016-07-31T09:45:05Z</time>
      </trkpt>
      <trkpt lat="42.43432" lon="0.04771">
        <ele>1013</ele>
        <time>2016-07-31T09:45:07Z</time>
      </trkpt>
      <trkpt lat="42.43429" lon="0.04768">
        <ele>1013.1</ele>
        <time>2016-07-31T09:45:09Z</time>
      </trkpt>
      <trkpt lat="42.43426" lon="0.04765">
        <ele>1013.2</ele>
        <time>2016-07-31T09:45:11Z</time>
      </trkpt>
      <trkpt lat="42.43423" lon="0.04762">
        <ele>1013.4</ele>
        <time>2016-07-31T09:45:13Z</time>
      </trkpt>
      <trkpt lat="42.43421" lon="0.04759">
        <ele>1013.6</ele>
        <time>2016-07-31T09:45:15Z</time>
      </trkpt>
      <trkpt lat="42.43419" lon="0.04757">
        <ele>1013.8</ele>
        <time>2016-07-31T09:45:17Z</time>
      </trkpt>
      <trkpt lat="42.43416" lon="0.04754">
        <ele>1014</ele>
        <time>2016-07-31T09:45:19Z</time>
      </trkpt>
      <trkpt lat="42.43413" lon="0.04751">
        <ele>1014.2</ele>
        <time>2016-07-31T09:45:21Z</time>
      </trkpt>
      <trkpt lat="42.4341" lon="0.04749">
        <ele>1014.5</ele>
        <time>2016-07-31T09:45:23Z</time>
      </trkpt>
      <trkpt lat="42.43408" lon="0.04747">
        <ele>1014.8</ele>
        <time>2016-07-31T09:45:25Z</time>
      </trkpt>
      <trkpt lat="42.43405" lon="0.04745">
        <ele>1015</ele>
        <time>2016-07-31T09:45:27Z</time>
      </trkpt>
      <trkpt lat="42.43402" lon="0.04743">
        <ele>1015.3</ele>
        <time>2016-07-31T09:45:29Z</time>
      </trkpt>
      <trkpt lat="42.434" lon="0.04739">
        <ele>1015.7</ele>
        <time>2016-07-31T09:45:31Z</time>
      </trkpt>
      <trkpt lat="42.43398" lon="0.04736">
        <ele>1016.2</ele>
        <time>2016-07-31T09:45:33Z</time>
      </trkpt>
      <trkpt lat="42.43396" lon="0.04733">
        <ele>1016.8</ele>
        <time>2016-07-31T09:45:35Z</time>
      </trkpt>
      <trkpt lat="42.43394" lon="0.04729">
        <ele>1017.4</ele>
        <time>2016-07-31T09:45:37Z</time>
      </trkpt>
      <trkpt lat="42.43392" lon="0.04725">
        <ele>1018.1</ele>
        <time>2016-07-31T09:45:39Z</time>
      </trkpt>
      <trkpt lat="42.4339" lon="0.04721">
        <ele>1018.9</ele>
        <time>2016-07-31T09:45:41Z</time>
      </trkpt>
      <trkpt lat="42.43388" lon="0.04718">
        <ele>1019.6</ele>
        <time>2016-07-31T09:45:43Z</time>
      </trkpt>
      <trkpt lat="42.43386" lon="0.04714">
        <ele>1020.3</ele>
        <time>2016-07-31T09:45:45Z</time>
      </trkpt>
      <trkpt lat="42.43384" lon="0.0471">
        <ele>1021.1</ele>
        <time>2016-07-31T09:45:47Z</time>
      </trkpt>
      <trkpt lat="42.43382" lon="0.04706">
        <ele>1021.7</ele>
        <time>2016-07-31T09:45:49Z</time>
      </trkpt>
      <trkpt lat="42.4338" lon="0.04702">
        <ele>1022</ele>
        <time>2016-07-31T09:45:51Z</time>
      </trkpt>
      <trkpt lat="42.43377" lon="0.04698">
        <ele>1022.4</ele>
        <time>2016-07-31T09:45:53Z</time>
      </trkpt>
      <trkpt lat="42.43375" lon="0.04694">
        <ele>1022.8</ele>
        <time>2016-07-31T09:45:55Z</time>
      </trkpt>
      <trkpt lat="42.43372" lon="0.04691">
        <ele>1022.5</ele>
        <time>2016-07-31T09:45:57Z</time>
      </trkpt>
      <trkpt lat="42.43369" lon="0.04689">
        <ele>1022.3</ele>
        <time>2016-07-31T09:45:59Z</time>
      </trkpt>
      <trkpt lat="42.43366" lon="0.04685">
        <ele>1022.2</ele>
        <time>2016-07-31T09:46:01Z</time>
      </trkpt>
      <trkpt lat="42.43363" lon="0.04682">
        <ele>1022</ele>
        <time>2016-07-31T09:46:03Z</time>
      </trkpt>
      <trkpt lat="42.4336" lon="0.04679">
        <ele>1021.9</ele>
        <time>2016-07-31T09:46:05Z</time>
      </trkpt>
      <trkpt lat="42.43357" lon="0.04676">
        <ele>1021.9</ele>
        <time>2016-07-31T09:46:07Z</time>
      </trkpt>
      <trkpt lat="42.43354" lon="0.04673">
        <ele>1021.8</ele>
        <time>2016-07-31T09:46:09Z</time>
      </trkpt>
      <trkpt lat="42.43351" lon="0.0467">
        <ele>1021.9</ele>
        <time>2016-07-31T09:46:11Z</time>
      </trkpt>
      <trkpt lat="42.43348" lon="0.04666">
        <ele>1022</ele>
        <time>2016-07-31T09:46:13Z</time>
      </trkpt>
      <trkpt lat="42.43346" lon="0.04663">
        <ele>1022.2</ele>
        <time>2016-07-31T09:46:15Z</time>
      </trkpt>
      <trkpt lat="42.43344" lon="0.0466">
        <ele>1022.5</ele>
        <time>2016-07-31T09:46:17Z</time>
      </trkpt>
      <trkpt lat="42.43342" lon="0.04657">
        <ele>1022.7</ele>
        <time>2016-07-31T09:46:19Z</time>
      </trkpt>
      <trkpt lat="42.43339" lon="0.04653">
        <ele>1023</ele>
        <time>2016-07-31T09:46:21Z</time>
      </trkpt>
      <trkpt lat="42.43337" lon="0.0465">
        <ele>1023.3</ele>
        <time>2016-07-31T09:46:23Z</time>
      </trkpt>
      <trkpt lat="42.43334" lon="0.04648">
        <ele>1023.5</ele>
        <time>2016-07-31T09:46:25Z</time>
      </trkpt>
      <trkpt lat="42.43332" lon="0.04645">
        <ele>1023.8</ele>
        <time>2016-07-31T09:46:27Z</time>
      </trkpt>
      <trkpt lat="42.4333" lon="0.04641">
        <ele>1024.3</ele>
        <time>2016-07-31T09:46:29Z</time>
      </trkpt>
      <trkpt lat="42.4333" lon="0.04637">
        <ele>1025.1</ele>
        <time>2016-07-31T09:46:31Z</time>
      </trkpt>
      <trkpt lat="42.43332" lon="0.04633">
        <ele>1025.8</ele>
        <time>2016-07-31T09:46:33Z</time>
      </trkpt>
      <trkpt lat="42.43335" lon="0.04631">
        <ele>1026.1</ele>
        <time>2016-07-31T09:46:35Z</time>
      </trkpt>
      <trkpt lat="42.43339" lon="0.04632">
        <ele>1026</ele>
        <time>2016-07-31T09:46:37Z</time>
      </trkpt>
      <trkpt lat="42.43343" lon="0.04634">
        <ele>1025.7</ele>
        <time>2016-07-31T09:46:39Z</time>
      </trkpt>
      <trkpt lat="42.43346" lon="0.04638">
        <ele>1025.3</ele>
        <time>2016-07-31T09:46:41Z</time>
      </trkpt>
      <trkpt lat="42.43349" lon="0.04641">
        <ele>1025</ele>
        <time>2016-07-31T09:46:43Z</time>
      </trkpt>
      <trkpt lat="42.43352" lon="0.04643">
        <ele>1024.9</ele>
        <time>2016-07-31T09:46:45Z</time>
      </trkpt>
      <trkpt lat="42.43356" lon="0.04644">
        <ele>1025</ele>
        <time>2016-07-31T09:46:47Z</time>
      </trkpt>
      <trkpt lat="42.43359" lon="0.04644">
        <ele>1025.1</ele>
        <time>2016-07-31T09:46:49Z</time>
      </trkpt>
      <trkpt lat="42.43362" lon="0.04643">
        <ele>1025.4</ele>
        <time>2016-07-31T09:46:51Z</time>
      </trkpt>
      <trkpt lat="42.43365" lon="0.04641">
        <ele>1025.7</ele>
        <time>2016-07-31T09:46:54Z</time>
      </trkpt>
      <trkpt lat="42.43365" lon="0.04636">
        <ele>1026.1</ele>
        <time>2016-07-31T09:46:56Z</time>
      </trkpt>
      <trkpt lat="42.43363" lon="0.04632">
        <ele>1026.4</ele>
        <time>2016-07-31T09:46:58Z</time>
      </trkpt>
      <trkpt lat="42.43361" lon="0.04628">
        <ele>1026.7</ele>
        <time>2016-07-31T09:47:00Z</time>
      </trkpt>
      <trkpt lat="42.43357" lon="0.04626">
        <ele>1026.9</ele>
        <time>2016-07-31T09:47:02Z</time>
      </trkpt>
      <trkpt lat="42.43353" lon="0.04624">
        <ele>1026.9</ele>
        <time>2016-07-31T09:47:04Z</time>
      </trkpt>
      <trkpt lat="42.4335" lon="0.04621">
        <ele>1026.8</ele>
        <time>2016-07-31T09:47:06Z</time>
      </trkpt>
      <trkpt lat="42.43347" lon="0.04619">
        <ele>1026.8</ele>
        <time>2016-07-31T09:47:08Z</time>
      </trkpt>
      <trkpt lat="42.43344" lon="0.04616">
        <ele>1026.7</ele>
        <time>2016-07-31T09:47:10Z</time>
      </trkpt>
      <trkpt lat="42.43341" lon="0.04613">
        <ele>1026.8</ele>
        <time>2016-07-31T09:47:12Z</time>
      </trkpt>
      <trkpt lat="42.43338" lon="0.0461">
        <ele>1026.9</ele>
        <time>2016-07-31T09:47:14Z</time>
      </trkpt>
      <trkpt lat="42.43335" lon="0.04607">
        <ele>1027</ele>
        <time>2016-07-31T09:47:16Z</time>
      </trkpt>
      <trkpt lat="42.43333" lon="0.04604">
        <ele>1027.2</ele>
        <time>2016-07-31T09:47:18Z</time>
      </trkpt>
      <trkpt lat="42.4333" lon="0.04601">
        <ele>1027.4</ele>
        <time>2016-07-31T09:47:20Z</time>
      </trkpt>
      <trkpt lat="42.43327" lon="0.04597">
        <ele>1027.7</ele>
        <time>2016-07-31T09:47:22Z</time>
      </trkpt>
      <trkpt lat="42.43325" lon="0.04594">
        <ele>1028.1</ele>
        <time>2016-07-31T09:47:24Z</time>
      </trkpt>
      <trkpt lat="42.43322" lon="0.0459">
        <ele>1028.5</ele>
        <time>2016-07-31T09:47:26Z</time>
      </trkpt>
      <trkpt lat="42.4332" lon="0.04587">
        <ele>1029</ele>
        <time>2016-07-31T09:47:28Z</time>
      </trkpt>
      <trkpt lat="42.43317" lon="0.04583">
        <ele>1029.6</ele>
        <time>2016-07-31T09:47:30Z</time>
      </trkpt>
      <trkpt lat="42.43314" lon="0.0458">
        <ele>1030.2</ele>
        <time>2016-07-31T09:47:32Z</time>
      </trkpt>
      <trkpt lat="42.4331" lon="0.04577">
        <ele>1030.9</ele>
        <time>2016-07-31T09:47:34Z</time>
      </trkpt>
      <trkpt lat="42.43307" lon="0.04575">
        <ele>1031.6</ele>
        <time>2016-07-31T09:47:36Z</time>
      </trkpt>
      <trkpt lat="42.43305" lon="0.04572">
        <ele>1032.4</ele>
        <time>2016-07-31T09:47:38Z</time>
      </trkpt>
      <trkpt lat="42.43302" lon="0.04568">
        <ele>1033.2</ele>
        <time>2016-07-31T09:47:40Z</time>
      </trkpt>
      <trkpt lat="42.433" lon="0.04565">
        <ele>1034.1</ele>
        <time>2016-07-31T09:47:42Z</time>
      </trkpt>
      <trkpt lat="42.43297" lon="0.04561">
        <ele>1035</ele>
        <time>2016-07-31T09:47:44Z</time>
      </trkpt>
      <trkpt lat="42.43294" lon="0.04558">
        <ele>1036.1</ele>
        <time>2016-07-31T09:47:46Z</time>
      </trkpt>
      <trkpt lat="42.43291" lon="0.04555">
        <ele>1037.2</ele>
        <time>2016-07-31T09:47:48Z</time>
      </trkpt>
      <trkpt lat="42.43288" lon="0.04551">
        <ele>1037.8</ele>
        <time>2016-07-31T09:47:50Z</time>
      </trkpt>
      <trkpt lat="42.43285" lon="0.04548">
        <ele>1038.4</ele>
        <time>2016-07-31T09:47:52Z</time>
      </trkpt>
      <trkpt lat="42.43282" lon="0.04545">
        <ele>1039</ele>
        <time>2016-07-31T09:47:54Z</time>
      </trkpt>
      <trkpt lat="42.43279" lon="0.04543">
        <ele>1039.5</ele>
        <time>2016-07-31T09:47:56Z</time>
      </trkpt>
      <trkpt lat="42.43276" lon="0.04541">
        <ele>1039.9</ele>
        <time>2016-07-31T09:47:58Z</time>
      </trkpt>
      <trkpt lat="42.43273" lon="0.04538">
        <ele>1039.9</ele>
        <time>2016-07-31T09:48:00Z</time>
      </trkpt>
      <trkpt lat="42.43269" lon="0.04535">
        <ele>1039.9</ele>
        <time>2016-07-31T09:48:02Z</time>
      </trkpt>
      <trkpt lat="42.43266" lon="0.04532">
        <ele>1040</ele>
        <time>2016-07-31T09:48:04Z</time>
      </trkpt>
      <trkpt lat="42.43262" lon="0.04529">
        <ele>1040.2</ele>
        <time>2016-07-31T09:48:06Z</time>
      </trkpt>
      <trkpt lat="42.43259" lon="0.04526">
        <ele>1040.3</ele>
        <time>2016-07-31T09:48:08Z</time>
      </trkpt>
      <trkpt lat="42.43256" lon="0.04523">
        <ele>1040.5</ele>
        <time>2016-07-31T09:48:10Z</time>
      </trkpt>
      <trkpt lat="42.43253" lon="0.04519">
        <ele>1040.7</ele>
        <time>2016-07-31T09:48:12Z</time>
      </trkpt>
      <trkpt lat="42.4325" lon="0.04516">
        <ele>1041</ele>
        <time>2016-07-31T09:48:14Z</time>
      </trkpt>
      <trkpt lat="42.43248" lon="0.04512">
        <ele>1041.3</ele>
        <time>2016-07-31T09:48:16Z</time>
      </trkpt>
      <trkpt lat="42.43245" lon="0.04508">
        <ele>1041.6</ele>
        <time>2016-07-31T09:48:18Z</time>
      </trkpt>
      <trkpt lat="42.43242" lon="0.04504">
        <ele>1042</ele>
        <time>2016-07-31T09:48:20Z</time>
      </trkpt>
      <trkpt lat="42.4324" lon="0.045">
        <ele>1042.5</ele>
        <time>2016-07-31T09:48:22Z</time>
      </trkpt>
      <trkpt lat="42.43238" lon="0.04496">
        <ele>1042.8</ele>
        <time>2016-07-31T09:48:24Z</time>
      </trkpt>
      <trkpt lat="42.43236" lon="0.04492">
        <ele>1043.1</ele>
        <time>2016-07-31T09:48:26Z</time>
      </trkpt>
      <trkpt lat="42.43235" lon="0.04489">
        <ele>1043.4</ele>
        <time>2016-07-31T09:48:28Z</time>
      </trkpt>
      <trkpt lat="42.43236" lon="0.04485">
        <ele>1043.3</ele>
        <time>2016-07-31T09:48:30Z</time>
      </trkpt>
      <trkpt lat="42.4324" lon="0.04484">
        <ele>1042.4</ele>
        <time>2016-07-31T09:48:32Z</time>
      </trkpt>
      <trkpt lat="42.43245" lon="0.04486">
        <ele>1041.6</ele>
        <time>2016-07-31T09:48:34Z</time>
      </trkpt>
      <trkpt lat="42.43248" lon="0.04488">
        <ele>1040.9</ele>
        <time>2016-07-31T09:48:36Z</time>
      </trkpt>
      <trkpt lat="42.43253" lon="0.04491">
        <ele>1040.1</ele>
        <time>2016-07-31T09:48:38Z</time>
      </trkpt>
      <trkpt lat="42.43256" lon="0.04495">
        <ele>1039.6</ele>
        <time>2016-07-31T09:48:40Z</time>
      </trkpt>
      <trkpt lat="42.43259" lon="0.04496">
        <ele>1039.1</ele>
        <time>2016-07-31T09:48:42Z</time>
      </trkpt>
      <trkpt lat="42.43265" lon="0.04502">
        <ele>1038.4</ele>
        <time>2016-07-31T09:54:17Z</time>
      </trkpt>
      <trkpt lat="42.43269" lon="0.04506">
        <ele>1038.1</ele>
        <time>2016-07-31T09:54:19Z</time>
      </trkpt>
      <trkpt lat="42.43272" lon="0.0451">
        <ele>1037.9</ele>
        <time>2016-07-31T09:54:21Z</time>
      </trkpt>
      <trkpt lat="42.43274" lon="0.04514">
        <ele>1037.9</ele>
        <time>2016-07-31T09:54:23Z</time>
      </trkpt>
      <trkpt lat="42.43275" lon="0.04519">
        <ele>1038.2</ele>
        <time>2016-07-31T09:54:30Z</time>
      </trkpt>
      <trkpt lat="42.43277" lon="0.04524">
        <ele>1038.4</ele>
        <time>2016-07-31T09:54:32Z</time>
      </trkpt>
      <trkpt lat="42.43279" lon="0.04528">
        <ele>1038.6</ele>
        <time>2016-07-31T09:54:34Z</time>
      </trkpt>
      <trkpt lat="42.4328" lon="0.04532">
        <ele>1038.8</ele>
        <time>2016-07-31T09:54:36Z</time>
      </trkpt>
      <trkpt lat="42.43283" lon="0.04535">
        <ele>1038.9</ele>
        <time>2016-07-31T09:54:38Z</time>
      </trkpt>
      <trkpt lat="42.43285" lon="0.04537">
        <ele>1038.9</ele>
        <time>2016-07-31T09:54:39Z</time>
      </trkpt>
      <trkpt lat="42.43288" lon="0.04539">
        <ele>1038.9</ele>
        <time>2016-07-31T09:54:40Z</time>
      </trkpt>
      <trkpt lat="42.43291" lon="0.04542">
        <ele>1039</ele>
        <time>2016-07-31T09:54:41Z</time>
      </trkpt>
      <trkpt lat="42.43294" lon="0.04544">
        <ele>1038.1</ele>
        <time>2016-07-31T09:54:42Z</time>
      </trkpt>
      <trkpt lat="42.43297" lon="0.04546">
        <ele>1037.1</ele>
        <time>2016-07-31T09:54:43Z</time>
      </trkpt>
      <trkpt lat="42.43299" lon="0.04548">
        <ele>1036.3</ele>
        <time>2016-07-31T09:54:44Z</time>
      </trkpt>
      <trkpt lat="42.43303" lon="0.04553">
        <ele>1034.7</ele>
        <time>2016-07-31T09:54:46Z</time>
      </trkpt>
      <trkpt lat="42.43306" lon="0.04555">
        <ele>1033.9</ele>
        <time>2016-07-31T09:54:47Z</time>
      </trkpt>
      <trkpt lat="42.43308" lon="0.04557">
        <ele>1033.1</ele>
        <time>2016-07-31T09:54:48Z</time>
      </trkpt>
      <trkpt lat="42.43311" lon="0.04559">
        <ele>1032.3</ele>
        <time>2016-07-31T09:54:49Z</time>
      </trkpt>
      <trkpt lat="42.43314" lon="0.04562">
        <ele>1031.4</ele>
        <time>2016-07-31T09:54:50Z</time>
      </trkpt>
      <trkpt lat="42.43317" lon="0.04566">
        <ele>1030.6</ele>
        <time>2016-07-31T09:54:51Z</time>
      </trkpt>
      <trkpt lat="42.43319" lon="0.04571">
        <ele>1029.9</ele>
        <time>2016-07-31T09:54:52Z</time>
      </trkpt>
      <trkpt lat="42.43322" lon="0.04574">
        <ele>1029.3</ele>
        <time>2016-07-31T09:54:53Z</time>
      </trkpt>
      <trkpt lat="42.43323" lon="0.04577">
        <ele>1028.9</ele>
        <time>2016-07-31T09:54:54Z</time>
      </trkpt>
      <trkpt lat="42.43328" lon="0.04581">
        <ele>1028.1</ele>
        <time>2016-07-31T09:54:56Z</time>
      </trkpt>
      <trkpt lat="42.43332" lon="0.04585">
        <ele>1027.5</ele>
        <time>2016-07-31T09:54:58Z</time>
      </trkpt>
      <trkpt lat="42.43334" lon="0.0459">
        <ele>1027.1</ele>
        <time>2016-07-31T09:55:00Z</time>
      </trkpt>
      <trkpt lat="42.43336" lon="0.04593">
        <ele>1026.9</ele>
        <time>2016-07-31T09:55:01Z</time>
      </trkpt>
      <trkpt lat="42.43339" lon="0.04596">
        <ele>1026.6</ele>
        <time>2016-07-31T09:55:02Z</time>
      </trkpt>
      <trkpt lat="42.43342" lon="0.04598">
        <ele>1026.4</ele>
        <time>2016-07-31T09:55:03Z</time>
      </trkpt>
      <trkpt lat="42.43345" lon="0.04601">
        <ele>1026.2</ele>
        <time>2016-07-31T09:55:04Z</time>
      </trkpt>
      <trkpt lat="42.43348" lon="0.04604">
        <ele>1026.1</ele>
        <time>2016-07-31T09:55:05Z</time>
      </trkpt>
      <trkpt lat="42.4335" lon="0.04607">
        <ele>1026.1</ele>
        <time>2016-07-31T09:55:06Z</time>
      </trkpt>
      <trkpt lat="42.43352" lon="0.04611">
        <ele>1026.2</ele>
        <time>2016-07-31T09:55:08Z</time>
      </trkpt>
      <trkpt lat="42.43355" lon="0.04615">
        <ele>1026.3</ele>
        <time>2016-07-31T09:55:10Z</time>
      </trkpt>
      <trkpt lat="42.4336" lon="0.04618">
        <ele>1026.4</ele>
        <time>2016-07-31T09:55:12Z</time>
      </trkpt>
      <trkpt lat="42.43362" lon="0.0462">
        <ele>1026.5</ele>
        <time>2016-07-31T09:55:13Z</time>
      </trkpt>
      <trkpt lat="42.43365" lon="0.04622">
        <ele>1026.7</ele>
        <time>2016-07-31T09:55:14Z</time>
      </trkpt>
      <trkpt lat="42.43368" lon="0.04624">
        <ele>1026.9</ele>
        <time>2016-07-31T09:55:15Z</time>
      </trkpt>
      <trkpt lat="42.4337" lon="0.04627">
        <ele>1026.8</ele>
        <time>2016-07-31T09:55:16Z</time>
      </trkpt>
      <trkpt lat="42.43371" lon="0.04631">
        <ele>1026.6</ele>
        <time>2016-07-31T09:55:17Z</time>
      </trkpt>
      <trkpt lat="42.43372" lon="0.04635">
        <ele>1026.4</ele>
        <time>2016-07-31T09:55:18Z</time>
      </trkpt>
      <trkpt lat="42.43373" lon="0.04639">
        <ele>1026.1</ele>
        <time>2016-07-31T09:55:19Z</time>
      </trkpt>
      <trkpt lat="42.43375" lon="0.04644">
        <ele>1025.7</ele>
        <time>2016-07-31T09:55:20Z</time>
      </trkpt>
      <trkpt lat="42.43379" lon="0.0465">
        <ele>1024.6</ele>
        <time>2016-07-31T09:55:21Z</time>
      </trkpt>
      <trkpt lat="42.43383" lon="0.04655">
        <ele>1023.4</ele>
        <time>2016-07-31T09:55:22Z</time>
      </trkpt>
      <trkpt lat="42.43387" lon="0.0466">
        <ele>1022.4</ele>
        <time>2016-07-31T09:55:23Z</time>
      </trkpt>
      <trkpt lat="42.4339" lon="0.04664">
        <ele>1021.7</ele>
        <time>2016-07-31T09:55:24Z</time>
      </trkpt>
      <trkpt lat="42.43391" lon="0.04668">
        <ele>1021.4</ele>
        <time>2016-07-31T09:55:25Z</time>
      </trkpt>
      <trkpt lat="42.43393" lon="0.04671">
        <ele>1021</ele>
        <time>2016-07-31T09:55:29Z</time>
      </trkpt>
      <trkpt lat="42.43396" lon="0.04674">
        <ele>1020.5</ele>
        <time>2016-07-31T09:55:32Z</time>
      </trkpt>
      <trkpt lat="42.43401" lon="0.04677">
        <ele>1019.8</ele>
        <time>2016-07-31T09:55:34Z</time>
      </trkpt>
      <trkpt lat="42.43403" lon="0.04679">
        <ele>1019.5</ele>
        <time>2016-07-31T09:55:35Z</time>
      </trkpt>
      <trkpt lat="42.43406" lon="0.04681">
        <ele>1019.1</ele>
        <time>2016-07-31T09:55:36Z</time>
      </trkpt>
      <trkpt lat="42.43409" lon="0.04683">
        <ele>1018.7</ele>
        <time>2016-07-31T09:55:37Z</time>
      </trkpt>
      <trkpt lat="42.43412" lon="0.04685">
        <ele>1018.4</ele>
        <time>2016-07-31T09:55:38Z</time>
      </trkpt>
      <trkpt lat="42.43415" lon="0.04686">
        <ele>1018.1</ele>
        <time>2016-07-31T09:55:39Z</time>
      </trkpt>
      <trkpt lat="42.43418" lon="0.04688">
        <ele>1017.9</ele>
        <time>2016-07-31T09:55:40Z</time>
      </trkpt>
      <trkpt lat="42.4342" lon="0.0469">
        <ele>1017.7</ele>
        <time>2016-07-31T09:55:41Z</time>
      </trkpt>
      <trkpt lat="42.43423" lon="0.04693">
        <ele>1017.7</ele>
        <time>2016-07-31T09:55:42Z</time>
      </trkpt>
      <trkpt lat="42.43426" lon="0.04695">
        <ele>1017.6</ele>
        <time>2016-07-31T09:55:43Z</time>
      </trkpt>
      <trkpt lat="42.43429" lon="0.04697">
        <ele>1017.5</ele>
        <time>2016-07-31T09:55:44Z</time>
      </trkpt>
      <trkpt lat="42.43433" lon="0.04699">
        <ele>1017.4</ele>
        <time>2016-07-31T09:55:45Z</time>
      </trkpt>
      <trkpt lat="42.43436" lon="0.047">
        <ele>1017.2</ele>
        <time>2016-07-31T09:55:46Z</time>
      </trkpt>
      <trkpt lat="42.43439" lon="0.04701">
        <ele>1017</ele>
        <time>2016-07-31T09:55:47Z</time>
      </trkpt>
      <trkpt lat="42.43443" lon="0.04703">
        <ele>1017</ele>
        <time>2016-07-31T09:55:49Z</time>
      </trkpt>
      <trkpt lat="42.43447" lon="0.04706">
        <ele>1017.2</ele>
        <time>2016-07-31T09:55:51Z</time>
      </trkpt>
      <trkpt lat="42.4345" lon="0.04707">
        <ele>1017.3</ele>
        <time>2016-07-31T09:55:53Z</time>
      </trkpt>
      <trkpt lat="42.43454" lon="0.04709">
        <ele>1017.2</ele>
        <time>2016-07-31T09:55:55Z</time>
      </trkpt>
      <trkpt lat="42.43457" lon="0.04714">
        <ele>1016.9</ele>
        <time>2016-07-31T09:55:57Z</time>
      </trkpt>
      <trkpt lat="42.43458" lon="0.04718">
        <ele>1016.6</ele>
        <time>2016-07-31T09:55:58Z</time>
      </trkpt>
      <trkpt lat="42.4346" lon="0.04723">
        <ele>1016</ele>
        <time>2016-07-31T09:55:59Z</time>
      </trkpt>
      <trkpt lat="42.43461" lon="0.04729">
        <ele>1015.3</ele>
        <time>2016-07-31T09:56:00Z</time>
      </trkpt>
      <trkpt lat="42.43462" lon="0.04735">
        <ele>1014.6</ele>
        <time>2016-07-31T09:56:01Z</time>
      </trkpt>
      <trkpt lat="42.43465" lon="0.04741">
        <ele>1013.7</ele>
        <time>2016-07-31T09:56:02Z</time>
      </trkpt>
      <trkpt lat="42.43468" lon="0.04748">
        <ele>1012.7</ele>
        <time>2016-07-31T09:56:03Z</time>
      </trkpt>
      <trkpt lat="42.43471" lon="0.04754">
        <ele>1011.6</ele>
        <time>2016-07-31T09:56:04Z</time>
      </trkpt>
      <trkpt lat="42.43475" lon="0.0476">
        <ele>1010.4</ele>
        <time>2016-07-31T09:56:05Z</time>
      </trkpt>
      <trkpt lat="42.4348" lon="0.04765">
        <ele>1009.4</ele>
        <time>2016-07-31T09:56:06Z</time>
      </trkpt>
      <trkpt lat="42.43484" lon="0.04771">
        <ele>1008.6</ele>
        <time>2016-07-31T09:56:07Z</time>
      </trkpt>
      <trkpt lat="42.43487" lon="0.04777">
        <ele>1008</ele>
        <time>2016-07-31T09:56:08Z</time>
      </trkpt>
      <trkpt lat="42.4349" lon="0.04784">
        <ele>1007.7</ele>
        <time>2016-07-31T09:56:09Z</time>
      </trkpt>
      <trkpt lat="42.43494" lon="0.0479">
        <ele>1007.5</ele>
        <time>2016-07-31T09:56:10Z</time>
      </trkpt>
      <trkpt lat="42.43497" lon="0.04794">
        <ele>1006.9</ele>
        <time>2016-07-31T09:56:12Z</time>
      </trkpt>
      <trkpt lat="42.43499" lon="0.04797">
        <ele>1006.3</ele>
        <time>2016-07-31T09:56:14Z</time>
      </trkpt>
      <trkpt lat="42.43502" lon="0.04799">
        <ele>1005.6</ele>
        <time>2016-07-31T09:56:16Z</time>
      </trkpt>
      <trkpt lat="42.43504" lon="0.04802">
        <ele>1005</ele>
        <time>2016-07-31T09:56:17Z</time>
      </trkpt>
      <trkpt lat="42.43508" lon="0.04805">
        <ele>1004.2</ele>
        <time>2016-07-31T09:56:19Z</time>
      </trkpt>
      <trkpt lat="42.4351" lon="0.04809">
        <ele>1003.7</ele>
        <time>2016-07-31T09:56:20Z</time>
      </trkpt>
      <trkpt lat="42.43512" lon="0.04812">
        <ele>1003.3</ele>
        <time>2016-07-31T09:56:21Z</time>
      </trkpt>
      <trkpt lat="42.43513" lon="0.04815">
        <ele>1003</ele>
        <time>2016-07-31T09:56:22Z</time>
      </trkpt>
      <trkpt lat="42.43515" lon="0.04818">
        <ele>1002.6</ele>
        <time>2016-07-31T09:56:23Z</time>
      </trkpt>
      <trkpt lat="42.43518" lon="0.04821">
        <ele>1002.2</ele>
        <time>2016-07-31T09:56:24Z</time>
      </trkpt>
      <trkpt lat="42.43521" lon="0.04825">
        <ele>1001.9</ele>
        <time>2016-07-31T09:56:25Z</time>
      </trkpt>
      <trkpt lat="42.43524" lon="0.04829">
        <ele>1001.6</ele>
        <time>2016-07-31T09:56:26Z</time>
      </trkpt>
      <trkpt lat="42.43527" lon="0.04833">
        <ele>1001.3</ele>
        <time>2016-07-31T09:56:27Z</time>
      </trkpt>
      <trkpt lat="42.4353" lon="0.04836">
        <ele>1001.1</ele>
        <time>2016-07-31T09:56:28Z</time>
      </trkpt>
      <trkpt lat="42.43533" lon="0.04839">
        <ele>1001</ele>
        <time>2016-07-31T09:56:29Z</time>
      </trkpt>
      <trkpt lat="42.43535" lon="0.04842">
        <ele>1001</ele>
        <time>2016-07-31T09:56:30Z</time>
      </trkpt>
      <trkpt lat="42.43538" lon="0.04845">
        <ele>1001</ele>
        <time>2016-07-31T09:56:31Z</time>
      </trkpt>
      <trkpt lat="42.4354" lon="0.04849">
        <ele>1001.1</ele>
        <time>2016-07-31T09:56:32Z</time>
      </trkpt>
      <trkpt lat="42.43542" lon="0.04851">
        <ele>1001.1</ele>
        <time>2016-07-31T09:56:33Z</time>
      </trkpt>
      <trkpt lat="42.43545" lon="0.04857">
        <ele>1000.2</ele>
        <time>2016-07-31T09:56:35Z</time>
      </trkpt>
      <trkpt lat="42.43548" lon="0.0486">
        <ele>999.4</ele>
        <time>2016-07-31T09:56:36Z</time>
      </trkpt>
      <trkpt lat="42.43551" lon="0.04862">
        <ele>998.4</ele>
        <time>2016-07-31T09:56:37Z</time>
      </trkpt>
      <trkpt lat="42.43555" lon="0.04863">
        <ele>997.3</ele>
        <time>2016-07-31T09:56:38Z</time>
      </trkpt>
      <trkpt lat="42.43558" lon="0.04865">
        <ele>996.2</ele>
        <time>2016-07-31T09:56:39Z</time>
      </trkpt>
      <trkpt lat="42.43561" lon="0.04866">
        <ele>995.3</ele>
        <time>2016-07-31T09:56:40Z</time>
      </trkpt>
      <trkpt lat="42.43564" lon="0.04867">
        <ele>994.5</ele>
        <time>2016-07-31T09:56:41Z</time>
      </trkpt>
      <trkpt lat="42.43567" lon="0.04871">
        <ele>993.8</ele>
        <time>2016-07-31T09:56:43Z</time>
      </trkpt>
      <trkpt lat="42.43569" lon="0.04875">
        <ele>993.7</ele>
        <time>2016-07-31T09:56:45Z</time>
      </trkpt>
      <trkpt lat="42.43572" lon="0.04878">
        <ele>992.5</ele>
        <time>2016-07-31T09:56:48Z</time>
      </trkpt>
      <trkpt lat="42.43576" lon="0.04881">
        <ele>991.3</ele>
        <time>2016-07-31T09:56:50Z</time>
      </trkpt>
      <trkpt lat="42.43579" lon="0.04884">
        <ele>990.2</ele>
        <time>2016-07-31T09:56:52Z</time>
      </trkpt>
      <trkpt lat="42.4358" lon="0.04888">
        <ele>989.6</ele>
        <time>2016-07-31T09:56:53Z</time>
      </trkpt>
      <trkpt lat="42.43581" lon="0.04891">
        <ele>989.1</ele>
        <time>2016-07-31T09:56:54Z</time>
      </trkpt>
      <trkpt lat="42.43581" lon="0.04898">
        <ele>988.6</ele>
        <time>2016-07-31T09:56:56Z</time>
      </trkpt>
      <trkpt lat="42.43583" lon="0.04903">
        <ele>987.8</ele>
        <time>2016-07-31T09:56:58Z</time>
      </trkpt>
      <trkpt lat="42.43586" lon="0.04905">
        <ele>987.3</ele>
        <time>2016-07-31T09:56:59Z</time>
      </trkpt>
      <trkpt lat="42.43591" lon="0.04907">
        <ele>986.3</ele>
        <time>2016-07-31T09:57:01Z</time>
      </trkpt>
      <trkpt lat="42.43594" lon="0.04908">
        <ele>985.6</ele>
        <time>2016-07-31T09:57:03Z</time>
      </trkpt>
      <trkpt lat="42.43597" lon="0.04911">
        <ele>985</ele>
        <time>2016-07-31T09:57:05Z</time>
      </trkpt>
      <trkpt lat="42.43601" lon="0.04915">
        <ele>984.4</ele>
        <time>2016-07-31T09:57:07Z</time>
      </trkpt>
      <trkpt lat="42.43604" lon="0.04918">
        <ele>984</ele>
        <time>2016-07-31T09:57:09Z</time>
      </trkpt>
      <trkpt lat="42.43606" lon="0.04922">
        <ele>983.9</ele>
        <time>2016-07-31T09:57:14Z</time>
      </trkpt>
      <trkpt lat="42.43609" lon="0.04924">
        <ele>983.6</ele>
        <time>2016-07-31T09:57:21Z</time>
      </trkpt>
      <trkpt lat="42.43611" lon="0.04927">
        <ele>983.4</ele>
        <time>2016-07-31T09:57:23Z</time>
      </trkpt>
      <trkpt lat="42.43614" lon="0.04932">
        <ele>983.4</ele>
        <time>2016-07-31T09:57:25Z</time>
      </trkpt>
      <trkpt lat="42.43618" lon="0.04935">
        <ele>983.3</ele>
        <time>2016-07-31T09:57:27Z</time>
      </trkpt>
      <trkpt lat="42.43622" lon="0.04937">
        <ele>983.2</ele>
        <time>2016-07-31T09:57:29Z</time>
      </trkpt>
      <trkpt lat="42.43625" lon="0.0494">
        <ele>983.3</ele>
        <time>2016-07-31T09:57:31Z</time>
      </trkpt>
      <trkpt lat="42.43627" lon="0.04944">
        <ele>983</ele>
        <time>2016-07-31T09:57:33Z</time>
      </trkpt>
      <trkpt lat="42.43629" lon="0.04948">
        <ele>982.7</ele>
        <time>2016-07-31T09:57:35Z</time>
      </trkpt>
      <trkpt lat="42.43631" lon="0.04952">
        <ele>982.4</ele>
        <time>2016-07-31T09:57:37Z</time>
      </trkpt>
      <trkpt lat="42.43634" lon="0.04955">
        <ele>981.8</ele>
        <time>2016-07-31T09:57:39Z</time>
      </trkpt>
      <trkpt lat="42.43637" lon="0.04957">
        <ele>981.1</ele>
        <time>2016-07-31T09:57:41Z</time>
      </trkpt>
      <trkpt lat="42.43641" lon="0.04959">
        <ele>980.2</ele>
        <time>2016-07-31T09:57:43Z</time>
      </trkpt>
      <trkpt lat="42.43644" lon="0.04961">
        <ele>979.1</ele>
        <time>2016-07-31T09:57:45Z</time>
      </trkpt>
      <trkpt lat="42.43647" lon="0.04964">
        <ele>977.9</ele>
        <time>2016-07-31T09:57:47Z</time>
      </trkpt>
      <trkpt lat="42.4365" lon="0.04969">
        <ele>976.8</ele>
        <time>2016-07-31T09:57:49Z</time>
      </trkpt>
      <trkpt lat="42.43652" lon="0.04971">
        <ele>976.1</ele>
        <time>2016-07-31T09:57:50Z</time>
      </trkpt>
      <trkpt lat="42.43654" lon="0.04974">
        <ele>975.2</ele>
        <time>2016-07-31T09:57:51Z</time>
      </trkpt>
      <trkpt lat="42.43658" lon="0.04976">
        <ele>974.3</ele>
        <time>2016-07-31T09:57:52Z</time>
      </trkpt>
      <trkpt lat="42.43661" lon="0.04979">
        <ele>973.4</ele>
        <time>2016-07-31T09:57:53Z</time>
      </trkpt>
      <trkpt lat="42.43664" lon="0.04982">
        <ele>972.8</ele>
        <time>2016-07-31T09:57:54Z</time>
      </trkpt>
      <trkpt lat="42.43666" lon="0.04984">
        <ele>972.4</ele>
        <time>2016-07-31T09:57:55Z</time>
      </trkpt>
      <trkpt lat="42.43668" lon="0.04987">
        <ele>971.9</ele>
        <time>2016-07-31T09:57:56Z</time>
      </trkpt>
      <trkpt lat="42.43671" lon="0.0499">
        <ele>971.4</ele>
        <time>2016-07-31T09:57:57Z</time>
      </trkpt>
      <trkpt lat="42.43674" lon="0.04992">
        <ele>971</ele>
        <time>2016-07-31T09:57:58Z</time>
      </trkpt>
      <trkpt lat="42.43677" lon="0.04995">
        <ele>970.7</ele>
        <time>2016-07-31T09:57:59Z</time>
      </trkpt>
      <trkpt lat="42.4368" lon="0.04999">
        <ele>970.4</ele>
        <time>2016-07-31T09:58:01Z</time>
      </trkpt>
      <trkpt lat="42.43683" lon="0.05004">
        <ele>970.3</ele>
        <time>2016-07-31T09:58:03Z</time>
      </trkpt>
      <trkpt lat="42.43686" lon="0.05007">
        <ele>970.2</ele>
        <time>2016-07-31T09:58:05Z</time>
      </trkpt>
      <trkpt lat="42.4369" lon="0.0501">
        <ele>970.1</ele>
        <time>2016-07-31T09:58:07Z</time>
      </trkpt>
      <trkpt lat="42.43692" lon="0.05012">
        <ele>970.1</ele>
        <time>2016-07-31T09:58:08Z</time>
      </trkpt>
      <trkpt lat="42.43695" lon="0.05014">
        <ele>970.2</ele>
        <time>2016-07-31T09:58:09Z</time>
      </trkpt>
      <trkpt lat="42.43697" lon="0.05017">
        <ele>970.3</ele>
        <time>2016-07-31T09:58:10Z</time>
      </trkpt>
      <trkpt lat="42.43699" lon="0.05019">
        <ele>970.5</ele>
        <time>2016-07-31T09:58:11Z</time>
      </trkpt>
      <trkpt lat="42.43701" lon="0.05021">
        <ele>970.8</ele>
        <time>2016-07-31T09:58:12Z</time>
      </trkpt>
      <trkpt lat="42.43705" lon="0.05026">
        <ele>971.3</ele>
        <time>2016-07-31T09:58:14Z</time>
      </trkpt>
      <trkpt lat="42.4371" lon="0.05027">
        <ele>971.1</ele>
        <time>2016-07-31T09:58:16Z</time>
      </trkpt>
      <trkpt lat="42.43714" lon="0.05029">
        <ele>970</ele>
        <time>2016-07-31T09:58:18Z</time>
      </trkpt>
      <trkpt lat="42.43717" lon="0.05032">
        <ele>969.2</ele>
        <time>2016-07-31T09:58:20Z</time>
      </trkpt>
      <trkpt lat="42.43721" lon="0.05035">
        <ele>968.7</ele>
        <time>2016-07-31T09:58:22Z</time>
      </trkpt>
      <trkpt lat="42.43724" lon="0.05038">
        <ele>968.3</ele>
        <time>2016-07-31T09:58:24Z</time>
      </trkpt>
      <trkpt lat="42.43727" lon="0.05041">
        <ele>968.2</ele>
        <time>2016-07-31T09:58:26Z</time>
      </trkpt>
      <trkpt lat="42.43728" lon="0.05048">
        <ele>967.1</ele>
        <time>2016-07-31T09:58:28Z</time>
      </trkpt>
      <trkpt lat="42.43729" lon="0.05053">
        <ele>966.3</ele>
        <time>2016-07-31T09:58:30Z</time>
      </trkpt>
      <trkpt lat="42.43731" lon="0.05057">
        <ele>965.6</ele>
        <time>2016-07-31T09:58:32Z</time>
      </trkpt>
      <trkpt lat="42.43734" lon="0.05059">
        <ele>964.6</ele>
        <time>2016-07-31T09:58:34Z</time>
      </trkpt>
      <trkpt lat="42.43737" lon="0.05062">
        <ele>963.5</ele>
        <time>2016-07-31T09:58:36Z</time>
      </trkpt>
      <trkpt lat="42.43742" lon="0.05064">
        <ele>962.2</ele>
        <time>2016-07-31T09:58:38Z</time>
      </trkpt>
      <trkpt lat="42.43747" lon="0.05066">
        <ele>960.9</ele>
        <time>2016-07-31T09:58:40Z</time>
      </trkpt>
      <trkpt lat="42.4375" lon="0.05068">
        <ele>960.2</ele>
        <time>2016-07-31T09:58:41Z</time>
      </trkpt>
      <trkpt lat="42.43753" lon="0.0507">
        <ele>959.3</ele>
        <time>2016-07-31T09:58:42Z</time>
      </trkpt>
      <trkpt lat="42.43757" lon="0.05073">
        <ele>958.4</ele>
        <time>2016-07-31T09:58:43Z</time>
      </trkpt>
      <trkpt lat="42.43761" lon="0.05076">
        <ele>957.5</ele>
        <time>2016-07-31T09:58:44Z</time>
      </trkpt>
      <trkpt lat="42.43764" lon="0.05078">
        <ele>956.9</ele>
        <time>2016-07-31T09:58:45Z</time>
      </trkpt>
      <trkpt lat="42.43767" lon="0.0508">
        <ele>956.3</ele>
        <time>2016-07-31T09:58:46Z</time>
      </trkpt>
      <trkpt lat="42.43771" lon="0.05083">
        <ele>955.7</ele>
        <time>2016-07-31T09:58:47Z</time>
      </trkpt>
      <trkpt lat="42.43774" lon="0.05086">
        <ele>955.2</ele>
        <time>2016-07-31T09:58:48Z</time>
      </trkpt>
      <trkpt lat="42.43777" lon="0.05089">
        <ele>954.9</ele>
        <time>2016-07-31T09:58:49Z</time>
      </trkpt>
      <trkpt lat="42.4378" lon="0.05093">
        <ele>954.7</ele>
        <time>2016-07-31T09:58:50Z</time>
      </trkpt>
      <trkpt lat="42.43782" lon="0.05096">
        <ele>954.5</ele>
        <time>2016-07-31T09:58:51Z</time>
      </trkpt>
      <trkpt lat="42.43786" lon="0.05099">
        <ele>954.3</ele>
        <time>2016-07-31T09:58:52Z</time>
      </trkpt>
      <trkpt lat="42.4379" lon="0.05103">
        <ele>954.1</ele>
        <time>2016-07-31T09:58:53Z</time>
      </trkpt>
      <trkpt lat="42.43793" lon="0.05106">
        <ele>953.6</ele>
        <time>2016-07-31T09:58:54Z</time>
      </trkpt>
      <trkpt lat="42.43797" lon="0.05109">
        <ele>952.9</ele>
        <time>2016-07-31T09:58:55Z</time>
      </trkpt>
      <trkpt lat="42.438" lon="0.05112">
        <ele>952.2</ele>
        <time>2016-07-31T09:58:56Z</time>
      </trkpt>
      <trkpt lat="42.43804" lon="0.05114">
        <ele>951.5</ele>
        <time>2016-07-31T09:58:57Z</time>
      </trkpt>
      <trkpt lat="42.43808" lon="0.05117">
        <ele>950.8</ele>
        <time>2016-07-31T09:58:58Z</time>
      </trkpt>
      <trkpt lat="42.43811" lon="0.05119">
        <ele>950.2</ele>
        <time>2016-07-31T09:58:59Z</time>
      </trkpt>
      <trkpt lat="42.43814" lon="0.0512">
        <ele>949.6</ele>
        <time>2016-07-31T09:59:00Z</time>
      </trkpt>
      <trkpt lat="42.43817" lon="0.05122">
        <ele>949.1</ele>
        <time>2016-07-31T09:59:01Z</time>
      </trkpt>
      <trkpt lat="42.4382" lon="0.05123">
        <ele>948.5</ele>
        <time>2016-07-31T09:59:02Z</time>
      </trkpt>
      <trkpt lat="42.43823" lon="0.05124">
        <ele>947.8</ele>
        <time>2016-07-31T09:59:03Z</time>
      </trkpt>
      <trkpt lat="42.43827" lon="0.05126">
        <ele>947.1</ele>
        <time>2016-07-31T09:59:04Z</time>
      </trkpt>
      <trkpt lat="42.4383" lon="0.05128">
        <ele>946</ele>
        <time>2016-07-31T09:59:05Z</time>
      </trkpt>
      <trkpt lat="42.43833" lon="0.05131">
        <ele>944.9</ele>
        <time>2016-07-31T09:59:06Z</time>
      </trkpt>
      <trkpt lat="42.43836" lon="0.05134">
        <ele>944.1</ele>
        <time>2016-07-31T09:59:07Z</time>
      </trkpt>
      <trkpt lat="42.43838" lon="0.05136">
        <ele>943.3</ele>
        <time>2016-07-31T09:59:08Z</time>
      </trkpt>
      <trkpt lat="42.4384" lon="0.05139">
        <ele>942.7</ele>
        <time>2016-07-31T09:59:09Z</time>
      </trkpt>
      <trkpt lat="42.43842" lon="0.05143">
        <ele>942</ele>
        <time>2016-07-31T09:59:10Z</time>
      </trkpt>
      <trkpt lat="42.43845" lon="0.05147">
        <ele>941.3</ele>
        <time>2016-07-31T09:59:11Z</time>
      </trkpt>
      <trkpt lat="42.43849" lon="0.05151">
        <ele>940.3</ele>
        <time>2016-07-31T09:59:12Z</time>
      </trkpt>
      <trkpt lat="42.43853" lon="0.05154">
        <ele>939.5</ele>
        <time>2016-07-31T09:59:13Z</time>
      </trkpt>
      <trkpt lat="42.43856" lon="0.05156">
        <ele>938.9</ele>
        <time>2016-07-31T09:59:14Z</time>
      </trkpt>
      <trkpt lat="42.43859" lon="0.05156">
        <ele>938.5</ele>
        <time>2016-07-31T09:59:15Z</time>
      </trkpt>
      <trkpt lat="42.43864" lon="0.05159">
        <ele>937.8</ele>
        <time>2016-07-31T09:59:17Z</time>
      </trkpt>
      <trkpt lat="42.43866" lon="0.05162">
        <ele>937.5</ele>
        <time>2016-07-31T09:59:18Z</time>
      </trkpt>
      <trkpt lat="42.43869" lon="0.05165">
        <ele>937.2</ele>
        <time>2016-07-31T09:59:20Z</time>
      </trkpt>
      <trkpt lat="42.43874" lon="0.05169">
        <ele>936.7</ele>
        <time>2016-07-31T10:00:14Z</time>
      </trkpt>
      <trkpt lat="42.43876" lon="0.05172">
        <ele>936.4</ele>
        <time>2016-07-31T10:00:16Z</time>
      </trkpt>
      <trkpt lat="42.43878" lon="0.05175">
        <ele>936.1</ele>
        <time>2016-07-31T10:00:18Z</time>
      </trkpt>
      <trkpt lat="42.43879" lon="0.05179">
        <ele>936</ele>
        <time>2016-07-31T10:00:20Z</time>
      </trkpt>
      <trkpt lat="42.4388" lon="0.05184">
        <ele>936</ele>
        <time>2016-07-31T10:00:22Z</time>
      </trkpt>
      <trkpt lat="42.43882" lon="0.05188">
        <ele>936</ele>
        <time>2016-07-31T10:00:23Z</time>
      </trkpt>
      <trkpt lat="42.43883" lon="0.05192">
        <ele>936</ele>
        <time>2016-07-31T10:00:24Z</time>
      </trkpt>
      <trkpt lat="42.43884" lon="0.05195">
        <ele>936</ele>
        <time>2016-07-31T10:00:25Z</time>
      </trkpt>
      <trkpt lat="42.43886" lon="0.05198">
        <ele>936</ele>
        <time>2016-07-31T10:00:26Z</time>
      </trkpt>
      <trkpt lat="42.43888" lon="0.05202">
        <ele>936</ele>
        <time>2016-07-31T10:00:27Z</time>
      </trkpt>
      <trkpt lat="42.43891" lon="0.05206">
        <ele>936.1</ele>
        <time>2016-07-31T10:00:29Z</time>
      </trkpt>
      <trkpt lat="42.43893" lon="0.0521">
        <ele>935.8</ele>
        <time>2016-07-31T10:00:31Z</time>
      </trkpt>
      <trkpt lat="42.43896" lon="0.05213">
        <ele>934.8</ele>
        <time>2016-07-31T10:00:33Z</time>
      </trkpt>
      <trkpt lat="42.43898" lon="0.05216">
        <ele>934.1</ele>
        <time>2016-07-31T10:00:35Z</time>
      </trkpt>
      <trkpt lat="42.43899" lon="0.05219">
        <ele>933.3</ele>
        <time>2016-07-31T10:00:37Z</time>
      </trkpt>
      <trkpt lat="42.43901" lon="0.05225">
        <ele>932.1</ele>
        <time>2016-07-31T10:00:39Z</time>
      </trkpt>
      <trkpt lat="42.43902" lon="0.05229">
        <ele>931.1</ele>
        <time>2016-07-31T10:00:41Z</time>
      </trkpt>
      <trkpt lat="42.43905" lon="0.05235">
        <ele>929.9</ele>
        <time>2016-07-31T10:00:43Z</time>
      </trkpt>
      <trkpt lat="42.43906" lon="0.05239">
        <ele>929.2</ele>
        <time>2016-07-31T10:00:45Z</time>
      </trkpt>
      <trkpt lat="42.43908" lon="0.05242">
        <ele>928.6</ele>
        <time>2016-07-31T10:00:52Z</time>
      </trkpt>
      <trkpt lat="42.43909" lon="0.05246">
        <ele>927.9</ele>
        <time>2016-07-31T10:00:57Z</time>
      </trkpt>
      <trkpt lat="42.43911" lon="0.05249">
        <ele>927.4</ele>
        <time>2016-07-31T10:01:04Z</time>
      </trkpt>
      <trkpt lat="42.43913" lon="0.05253">
        <ele>926.8</ele>
        <time>2016-07-31T10:01:07Z</time>
      </trkpt>
      <trkpt lat="42.43913" lon="0.05257">
        <ele>926.2</ele>
        <time>2016-07-31T10:01:09Z</time>
      </trkpt>
      <trkpt lat="42.43914" lon="0.05261">
        <ele>925.5</ele>
        <time>2016-07-31T10:01:11Z</time>
      </trkpt>
      <trkpt lat="42.43914" lon="0.05264">
        <ele>925</ele>
        <time>2016-07-31T10:01:13Z</time>
      </trkpt>
      <trkpt lat="42.43915" lon="0.05268">
        <ele>924.4</ele>
        <time>2016-07-31T10:01:16Z</time>
      </trkpt>
      <trkpt lat="42.43917" lon="0.05272">
        <ele>923.9</ele>
        <time>2016-07-31T10:01:19Z</time>
      </trkpt>
      <trkpt lat="42.43919" lon="0.05275">
        <ele>923.7</ele>
        <time>2016-07-31T10:01:26Z</time>
      </trkpt>
      <trkpt lat="42.43922" lon="0.05277">
        <ele>923.6</ele>
        <time>2016-07-31T10:01:29Z</time>
      </trkpt>
      <trkpt lat="42.43925" lon="0.05281">
        <ele>923.4</ele>
        <time>2016-07-31T10:01:31Z</time>
      </trkpt>
      <trkpt lat="42.43927" lon="0.05284">
        <ele>923.1</ele>
        <time>2016-07-31T10:01:33Z</time>
      </trkpt>
      <trkpt lat="42.43928" lon="0.05288">
        <ele>922.9</ele>
        <time>2016-07-31T10:01:35Z</time>
      </trkpt>
      <trkpt lat="42.4393" lon="0.05292">
        <ele>922.6</ele>
        <time>2016-07-31T10:01:37Z</time>
      </trkpt>
      <trkpt lat="42.43933" lon="0.05296">
        <ele>921.6</ele>
        <time>2016-07-31T10:01:39Z</time>
      </trkpt>
      <trkpt lat="42.43935" lon="0.05299">
        <ele>920.9</ele>
        <time>2016-07-31T10:01:41Z</time>
      </trkpt>
      <trkpt lat="42.43938" lon="0.05304">
        <ele>919.9</ele>
        <time>2016-07-31T10:01:43Z</time>
      </trkpt>
      <trkpt lat="42.4394" lon="0.05309">
        <ele>918.5</ele>
        <time>2016-07-31T10:01:45Z</time>
      </trkpt>
      <trkpt lat="42.43942" lon="0.05314">
        <ele>917.3</ele>
        <time>2016-07-31T10:01:47Z</time>
      </trkpt>
      <trkpt lat="42.43943" lon="0.05318">
        <ele>916.4</ele>
        <time>2016-07-31T10:01:49Z</time>
      </trkpt>
      <trkpt lat="42.43944" lon="0.05322">
        <ele>915.4</ele>
        <time>2016-07-31T10:01:53Z</time>
      </trkpt>
      <trkpt lat="42.43946" lon="0.05325">
        <ele>914.5</ele>
        <time>2016-07-31T10:02:00Z</time>
      </trkpt>
      <trkpt lat="42.43947" lon="0.05329">
        <ele>913.5</ele>
        <time>2016-07-31T10:02:09Z</time>
      </trkpt>
      <trkpt lat="42.43949" lon="0.05332">
        <ele>912.8</ele>
        <time>2016-07-31T10:02:13Z</time>
      </trkpt>
      <trkpt lat="42.4395" lon="0.05336">
        <ele>911.9</ele>
        <time>2016-07-31T10:02:16Z</time>
      </trkpt>
      <trkpt lat="42.43951" lon="0.0534">
        <ele>910.8</ele>
        <time>2016-07-31T10:02:19Z</time>
      </trkpt>
      <trkpt lat="42.43953" lon="0.05343">
        <ele>910.1</ele>
        <time>2016-07-31T10:02:23Z</time>
      </trkpt>
      <trkpt lat="42.43955" lon="0.05345">
        <ele>909.6</ele>
        <time>2016-07-31T10:02:34Z</time>
      </trkpt>
      <trkpt lat="42.43958" lon="0.05353">
        <ele>907.6</ele>
        <time>2016-07-31T10:02:52Z</time>
      </trkpt>
      <trkpt lat="42.4396" lon="0.05355">
        <ele>907.2</ele>
        <time>2016-07-31T10:03:06Z</time>
      </trkpt>
      <trkpt lat="42.43962" lon="0.05359">
        <ele>906.1</ele>
        <time>2016-07-31T10:03:10Z</time>
      </trkpt>
      <trkpt lat="42.43964" lon="0.05363">
        <ele>905.2</ele>
        <time>2016-07-31T10:03:12Z</time>
      </trkpt>
      <trkpt lat="42.43966" lon="0.05368">
        <ele>903.8</ele>
        <time>2016-07-31T10:03:14Z</time>
      </trkpt>
      <trkpt lat="42.43968" lon="0.05373">
        <ele>902.6</ele>
        <time>2016-07-31T10:03:16Z</time>
      </trkpt>
      <trkpt lat="42.4397" lon="0.05378">
        <ele>901.4</ele>
        <time>2016-07-31T10:03:18Z</time>
      </trkpt>
      <trkpt lat="42.43972" lon="0.05382">
        <ele>900.2</ele>
        <time>2016-07-31T10:03:20Z</time>
      </trkpt>
      <trkpt lat="42.43974" lon="0.05387">
        <ele>898.8</ele>
        <time>2016-07-31T10:03:22Z</time>
      </trkpt>
      <trkpt lat="42.43975" lon="0.05391">
        <ele>897.8</ele>
        <time>2016-07-31T10:03:24Z</time>
      </trkpt>
      <trkpt lat="42.43978" lon="0.05395">
        <ele>896.8</ele>
        <time>2016-07-31T10:03:26Z</time>
      </trkpt>
      <trkpt lat="42.4398" lon="0.05399">
        <ele>895.8</ele>
        <time>2016-07-31T10:03:28Z</time>
      </trkpt>
      <trkpt lat="42.43983" lon="0.05403">
        <ele>895</ele>
        <time>2016-07-31T10:03:30Z</time>
      </trkpt>
      <trkpt lat="42.43985" lon="0.05407">
        <ele>894</ele>
        <time>2016-07-31T10:03:32Z</time>
      </trkpt>
      <trkpt lat="42.43988" lon="0.05411">
        <ele>892.8</ele>
        <time>2016-07-31T10:03:34Z</time>
      </trkpt>
      <trkpt lat="42.4399" lon="0.05416">
        <ele>891.7</ele>
        <time>2016-07-31T10:03:36Z</time>
      </trkpt>
      <trkpt lat="42.43992" lon="0.05419">
        <ele>891</ele>
        <time>2016-07-31T10:03:38Z</time>
      </trkpt>
      <trkpt lat="42.43994" lon="0.05421">
        <ele>890.3</ele>
        <time>2016-07-31T10:03:40Z</time>
      </trkpt>
      <trkpt lat="42.43995" lon="0.05425">
        <ele>889.4</ele>
        <time>2016-07-31T10:03:42Z</time>
      </trkpt>
      <trkpt lat="42.43996" lon="0.05428">
        <ele>888.4</ele>
        <time>2016-07-31T10:03:44Z</time>
      </trkpt>
      <trkpt lat="42.43998" lon="0.05431">
        <ele>887.7</ele>
        <time>2016-07-31T10:03:56Z</time>
      </trkpt>
      <trkpt lat="42.43998" lon="0.05436">
        <ele>886.4</ele>
        <time>2016-07-31T10:04:07Z</time>
      </trkpt>
      <trkpt lat="42.44" lon="0.0544">
        <ele>885.2</ele>
        <time>2016-07-31T10:04:15Z</time>
      </trkpt>
      <trkpt lat="42.44001" lon="0.05443">
        <ele>884.3</ele>
        <time>2016-07-31T10:04:21Z</time>
      </trkpt>
      <trkpt lat="42.44002" lon="0.05447">
        <ele>883.3</ele>
        <time>2016-07-31T10:04:27Z</time>
      </trkpt>
      <trkpt lat="42.44004" lon="0.0545">
        <ele>882.7</ele>
        <time>2016-07-31T10:04:33Z</time>
      </trkpt>
      <trkpt lat="42.44005" lon="0.05453">
        <ele>881.8</ele>
        <time>2016-07-31T10:04:37Z</time>
      </trkpt>
      <trkpt lat="42.44006" lon="0.05457">
        <ele>880.7</ele>
        <time>2016-07-31T10:04:43Z</time>
      </trkpt>
      <trkpt lat="42.44009" lon="0.05459">
        <ele>880.1</ele>
        <time>2016-07-31T10:04:48Z</time>
      </trkpt>
      <trkpt lat="42.4401" lon="0.05463">
        <ele>879.2</ele>
        <time>2016-07-31T10:04:55Z</time>
      </trkpt>
      <trkpt lat="42.44012" lon="0.05466">
        <ele>878.5</ele>
        <time>2016-07-31T10:05:02Z</time>
      </trkpt>
      <trkpt lat="42.44014" lon="0.05469">
        <ele>877.8</ele>
        <time>2016-07-31T10:05:05Z</time>
      </trkpt>
      <trkpt lat="42.44015" lon="0.05473">
        <ele>876.6</ele>
        <time>2016-07-31T10:05:09Z</time>
      </trkpt>
      <trkpt lat="42.44017" lon="0.05476">
        <ele>875.7</ele>
        <time>2016-07-31T10:05:15Z</time>
      </trkpt>
      <trkpt lat="42.44017" lon="0.0548">
        <ele>874.5</ele>
        <time>2016-07-31T10:05:19Z</time>
      </trkpt>
      <trkpt lat="42.44018" lon="0.05484">
        <ele>873.4</ele>
        <time>2016-07-31T10:05:23Z</time>
      </trkpt>
      <trkpt lat="42.44019" lon="0.05487">
        <ele>872.4</ele>
        <time>2016-07-31T10:05:27Z</time>
      </trkpt>
      <trkpt lat="42.44022" lon="0.05491">
        <ele>871.6</ele>
        <time>2016-07-31T10:05:31Z</time>
      </trkpt>
      <trkpt lat="42.44024" lon="0.05494">
        <ele>870.8</ele>
        <time>2016-07-31T10:05:34Z</time>
      </trkpt>
      <trkpt lat="42.44026" lon="0.05496">
        <ele>870.2</ele>
        <time>2016-07-31T10:05:37Z</time>
      </trkpt>
      <trkpt lat="42.44028" lon="0.05501">
        <ele>869</ele>
        <time>2016-07-31T10:05:39Z</time>
      </trkpt>
      <trkpt lat="42.44029" lon="0.05505">
        <ele>867.5</ele>
        <time>2016-07-31T10:05:41Z</time>
      </trkpt>
      <trkpt lat="42.4403" lon="0.05509">
        <ele>866.5</ele>
        <time>2016-07-31T10:05:43Z</time>
      </trkpt>
      <trkpt lat="42.44032" lon="0.05513">
        <ele>865.6</ele>
        <time>2016-07-31T10:05:45Z</time>
      </trkpt>
      <trkpt lat="42.44034" lon="0.05516">
        <ele>864.7</ele>
        <time>2016-07-31T10:05:47Z</time>
      </trkpt>
      <trkpt lat="42.44037" lon="0.0552">
        <ele>863.6</ele>
        <time>2016-07-31T10:05:49Z</time>
      </trkpt>
      <trkpt lat="42.44039" lon="0.05524">
        <ele>862.3</ele>
        <time>2016-07-31T10:05:51Z</time>
      </trkpt>
      <trkpt lat="42.44041" lon="0.05529">
        <ele>861</ele>
        <time>2016-07-31T10:05:53Z</time>
      </trkpt>
      <trkpt lat="42.44043" lon="0.05533">
        <ele>860</ele>
        <time>2016-07-31T10:05:55Z</time>
      </trkpt>
      <trkpt lat="42.44044" lon="0.05536">
        <ele>859.1</ele>
        <time>2016-07-31T10:05:57Z</time>
      </trkpt>
      <trkpt lat="42.44046" lon="0.0554">
        <ele>858</ele>
        <time>2016-07-31T10:05:59Z</time>
      </trkpt>
      <trkpt lat="42.44047" lon="0.05544">
        <ele>857.2</ele>
        <time>2016-07-31T10:06:01Z</time>
      </trkpt>
      <trkpt lat="42.4405" lon="0.05547">
        <ele>856.6</ele>
        <time>2016-07-31T10:06:04Z</time>
      </trkpt>
      <trkpt lat="42.44052" lon="0.0555">
        <ele>855.9</ele>
        <time>2016-07-31T10:06:06Z</time>
      </trkpt>
      <trkpt lat="42.44054" lon="0.05554">
        <ele>855</ele>
        <time>2016-07-31T10:06:08Z</time>
      </trkpt>
      <trkpt lat="42.44056" lon="0.05558">
        <ele>854.3</ele>
        <time>2016-07-31T10:06:10Z</time>
      </trkpt>
      <trkpt lat="42.44059" lon="0.05561">
        <ele>853.8</ele>
        <time>2016-07-31T10:06:12Z</time>
      </trkpt>
      <trkpt lat="42.44061" lon="0.05564">
        <ele>853.1</ele>
        <time>2016-07-31T10:06:14Z</time>
      </trkpt>
      <trkpt lat="42.44062" lon="0.05568">
        <ele>852.2</ele>
        <time>2016-07-31T10:06:16Z</time>
      </trkpt>
      <trkpt lat="42.44064" lon="0.05572">
        <ele>851.1</ele>
        <time>2016-07-31T10:06:18Z</time>
      </trkpt>
      <trkpt lat="42.44066" lon="0.05577">
        <ele>850.1</ele>
        <time>2016-07-31T10:06:20Z</time>
      </trkpt>
      <trkpt lat="42.44069" lon="0.05581">
        <ele>849</ele>
        <time>2016-07-31T10:06:22Z</time>
      </trkpt>
      <trkpt lat="42.4407" lon="0.05585">
        <ele>848</ele>
        <time>2016-07-31T10:06:24Z</time>
      </trkpt>
      <trkpt lat="42.44075" lon="0.05591">
        <ele>846.8</ele>
        <time>2016-07-31T10:06:45Z</time>
      </trkpt>
      <trkpt lat="42.44076" lon="0.05594">
        <ele>846</ele>
        <time>2016-07-31T10:06:51Z</time>
      </trkpt>
      <trkpt lat="42.44077" lon="0.05599">
        <ele>844.8</ele>
        <time>2016-07-31T10:06:55Z</time>
      </trkpt>
      <trkpt lat="42.44077" lon="0.05605">
        <ele>843.1</ele>
        <time>2016-07-31T10:06:57Z</time>
      </trkpt>
      <trkpt lat="42.44079" lon="0.05611">
        <ele>841.3</ele>
        <time>2016-07-31T10:06:59Z</time>
      </trkpt>
      <trkpt lat="42.44081" lon="0.05615">
        <ele>840.3</ele>
        <time>2016-07-31T10:07:03Z</time>
      </trkpt>
      <trkpt lat="42.44084" lon="0.05618">
        <ele>839.6</ele>
        <time>2016-07-31T10:07:05Z</time>
      </trkpt>
      <trkpt lat="42.44087" lon="0.05622">
        <ele>838.7</ele>
        <time>2016-07-31T10:07:07Z</time>
      </trkpt>
      <trkpt lat="42.44089" lon="0.05625">
        <ele>838</ele>
        <time>2016-07-31T10:07:09Z</time>
      </trkpt>
      <trkpt lat="42.44091" lon="0.05628">
        <ele>837.2</ele>
        <time>2016-07-31T10:07:11Z</time>
      </trkpt>
      <trkpt lat="42.44094" lon="0.05633">
        <ele>836</ele>
        <time>2016-07-31T10:07:13Z</time>
      </trkpt>
      <trkpt lat="42.44097" lon="0.05638">
        <ele>834.7</ele>
        <time>2016-07-31T10:07:15Z</time>
      </trkpt>
      <trkpt lat="42.44098" lon="0.05642">
        <ele>833.6</ele>
        <time>2016-07-31T10:07:17Z</time>
      </trkpt>
      <trkpt lat="42.44099" lon="0.05647">
        <ele>832.1</ele>
        <time>2016-07-31T10:07:19Z</time>
      </trkpt>
      <trkpt lat="42.441" lon="0.0565">
        <ele>831.1</ele>
        <time>2016-07-31T10:07:21Z</time>
      </trkpt>
      <trkpt lat="42.44102" lon="0.05654">
        <ele>830.1</ele>
        <time>2016-07-31T10:07:23Z</time>
      </trkpt>
      <trkpt lat="42.44104" lon="0.05657">
        <ele>829.4</ele>
        <time>2016-07-31T10:07:24Z</time>
      </trkpt>
      <trkpt lat="42.44106" lon="0.05661">
        <ele>828.5</ele>
        <time>2016-07-31T10:07:25Z</time>
      </trkpt>
      <trkpt lat="42.44109" lon="0.05665">
        <ele>827.6</ele>
        <time>2016-07-31T10:07:26Z</time>
      </trkpt>
      <trkpt lat="42.44111" lon="0.05668">
        <ele>826.8</ele>
        <time>2016-07-31T10:07:27Z</time>
      </trkpt>
      <trkpt lat="42.44115" lon="0.05672">
        <ele>826.1</ele>
        <time>2016-07-31T10:07:29Z</time>
      </trkpt>
      <trkpt lat="42.44118" lon="0.05675">
        <ele>825.5</ele>
        <time>2016-07-31T10:07:31Z</time>
      </trkpt>
      <trkpt lat="42.4412" lon="0.05678">
        <ele>824.5</ele>
        <time>2016-07-31T10:07:33Z</time>
      </trkpt>
      <trkpt lat="42.44123" lon="0.05682">
        <ele>823.6</ele>
        <time>2016-07-31T10:07:36Z</time>
      </trkpt>
      <trkpt lat="42.44123" lon="0.05686">
        <ele>822.4</ele>
        <time>2016-07-31T10:07:47Z</time>
      </trkpt>
      <trkpt lat="42.44125" lon="0.05689">
        <ele>821.8</ele>
        <time>2016-07-31T10:07:51Z</time>
      </trkpt>
      <trkpt lat="42.44126" lon="0.05692">
        <ele>821</ele>
        <time>2016-07-31T10:07:55Z</time>
      </trkpt>
      <trkpt lat="42.44128" lon="0.05696">
        <ele>820.1</ele>
        <time>2016-07-31T10:07:58Z</time>
      </trkpt>
      <trkpt lat="42.44129" lon="0.05701">
        <ele>819</ele>
        <time>2016-07-31T10:08:02Z</time>
      </trkpt>
      <trkpt lat="42.44131" lon="0.05703">
        <ele>818.5</ele>
        <time>2016-07-31T10:08:05Z</time>
      </trkpt>
      <trkpt lat="42.44134" lon="0.05706">
        <ele>818.3</ele>
        <time>2016-07-31T10:08:08Z</time>
      </trkpt>
      <trkpt lat="42.44136" lon="0.05709">
        <ele>817.7</ele>
        <time>2016-07-31T10:08:12Z</time>
      </trkpt>
      <trkpt lat="42.44137" lon="0.05713">
        <ele>816.8</ele>
        <time>2016-07-31T10:08:17Z</time>
      </trkpt>
      <trkpt lat="42.44138" lon="0.05717">
        <ele>815.6</ele>
        <time>2016-07-31T10:08:25Z</time>
      </trkpt>
      <trkpt lat="42.44138" lon="0.05721">
        <ele>814.5</ele>
        <time>2016-07-31T10:08:28Z</time>
      </trkpt>
      <trkpt lat="42.4414" lon="0.05723">
        <ele>814.4</ele>
        <time>2016-07-31T10:08:39Z</time>
      </trkpt>
      <trkpt lat="42.44143" lon="0.05731">
        <ele>812.5</ele>
        <time>2016-07-31T10:09:25Z</time>
      </trkpt>
      <trkpt lat="42.44144" lon="0.05734">
        <ele>811.8</ele>
        <time>2016-07-31T10:09:28Z</time>
      </trkpt>
      <trkpt lat="42.44147" lon="0.05737">
        <ele>811.2</ele>
        <time>2016-07-31T10:09:31Z</time>
      </trkpt>
      <trkpt lat="42.44148" lon="0.05741">
        <ele>810.4</ele>
        <time>2016-07-31T10:09:34Z</time>
      </trkpt>
      <trkpt lat="42.4415" lon="0.05743">
        <ele>809.9</ele>
        <time>2016-07-31T10:09:37Z</time>
      </trkpt>
      <trkpt lat="42.44151" lon="0.05747">
        <ele>809.2</ele>
        <time>2016-07-31T10:09:41Z</time>
      </trkpt>
      <trkpt lat="42.44153" lon="0.05751">
        <ele>808.2</ele>
        <time>2016-07-31T10:09:45Z</time>
      </trkpt>
      <trkpt lat="42.44155" lon="0.05754">
        <ele>807.8</ele>
        <time>2016-07-31T10:09:48Z</time>
      </trkpt>
      <trkpt lat="42.44157" lon="0.05757">
        <ele>807</ele>
        <time>2016-07-31T10:09:51Z</time>
      </trkpt>
      <trkpt lat="42.44159" lon="0.05761">
        <ele>806.3</ele>
        <time>2016-07-31T10:09:54Z</time>
      </trkpt>
      <trkpt lat="42.44159" lon="0.05766">
        <ele>805</ele>
        <time>2016-07-31T10:09:58Z</time>
      </trkpt>
      <trkpt lat="42.4416" lon="0.05769">
        <ele>804</ele>
        <time>2016-07-31T10:10:01Z</time>
      </trkpt>
      <trkpt lat="42.44162" lon="0.05773">
        <ele>803.4</ele>
        <time>2016-07-31T10:10:04Z</time>
      </trkpt>
      <trkpt lat="42.44164" lon="0.05776">
        <ele>802.7</ele>
        <time>2016-07-31T10:10:10Z</time>
      </trkpt>
      <trkpt lat="42.44166" lon="0.05779">
        <ele>802.2</ele>
        <time>2016-07-31T10:10:13Z</time>
      </trkpt>
      <trkpt lat="42.44167" lon="0.05783">
        <ele>801.1</ele>
        <time>2016-07-31T10:10:16Z</time>
      </trkpt>
      <trkpt lat="42.44168" lon="0.05787">
        <ele>800</ele>
        <time>2016-07-31T10:10:18Z</time>
      </trkpt>
      <trkpt lat="42.44168" lon="0.05791">
        <ele>798.9</ele>
        <time>2016-07-31T10:10:22Z</time>
      </trkpt>
      <trkpt lat="42.4417" lon="0.05795">
        <ele>798.1</ele>
        <time>2016-07-31T10:10:26Z</time>
      </trkpt>
      <trkpt lat="42.44172" lon="0.05798">
        <ele>797.8</ele>
        <time>2016-07-31T10:10:30Z</time>
      </trkpt>
      <trkpt lat="42.44174" lon="0.058">
        <ele>797.7</ele>
        <time>2016-07-31T10:10:34Z</time>
      </trkpt>
      <trkpt lat="42.44178" lon="0.058">
        <ele>798</ele>
        <time>2016-07-31T10:10:37Z</time>
      </trkpt>
      <trkpt lat="42.4418" lon="0.05802">
        <ele>797.9</ele>
        <time>2016-07-31T10:10:40Z</time>
      </trkpt>
      <trkpt lat="42.44182" lon="0.05805">
        <ele>797.4</ele>
        <time>2016-07-31T10:10:45Z</time>
      </trkpt>
      <trkpt lat="42.44184" lon="0.05809">
        <ele>796.6</ele>
        <time>2016-07-31T10:10:49Z</time>
      </trkpt>
      <trkpt lat="42.44184" lon="0.05813">
        <ele>795.7</ele>
        <time>2016-07-31T10:10:52Z</time>
      </trkpt>
      <trkpt lat="42.44186" lon="0.05817">
        <ele>795</ele>
        <time>2016-07-31T10:10:56Z</time>
      </trkpt>
      <trkpt lat="42.44189" lon="0.05819">
        <ele>794.8</ele>
        <time>2016-07-31T10:10:59Z</time>
      </trkpt>
      <trkpt lat="42.44191" lon="0.05822">
        <ele>794.3</ele>
        <time>2016-07-31T10:11:03Z</time>
      </trkpt>
      <trkpt lat="42.44192" lon="0.05826">
        <ele>793.3</ele>
        <time>2016-07-31T10:11:08Z</time>
      </trkpt>
      <trkpt lat="42.44192" lon="0.0583">
        <ele>792.3</ele>
        <time>2016-07-31T10:11:12Z</time>
      </trkpt>
      <trkpt lat="42.44193" lon="0.05835">
        <ele>791</ele>
        <time>2016-07-31T10:11:16Z</time>
      </trkpt>
      <trkpt lat="42.44195" lon="0.0584">
        <ele>790</ele>
        <time>2016-07-31T10:11:18Z</time>
      </trkpt>
      <trkpt lat="42.44198" lon="0.05844">
        <ele>789.2</ele>
        <time>2016-07-31T10:11:20Z</time>
      </trkpt>
      <trkpt lat="42.44201" lon="0.05848">
        <ele>788.5</ele>
        <time>2016-07-31T10:11:22Z</time>
      </trkpt>
      <trkpt lat="42.44204" lon="0.05852">
        <ele>788</ele>
        <time>2016-07-31T10:11:24Z</time>
      </trkpt>
      <trkpt lat="42.44207" lon="0.05855">
        <ele>787.3</ele>
        <time>2016-07-31T10:11:26Z</time>
      </trkpt>
      <trkpt lat="42.4421" lon="0.05861">
        <ele>786.2</ele>
        <time>2016-07-31T10:11:28Z</time>
      </trkpt>
      <trkpt lat="42.44213" lon="0.05866">
        <ele>785.1</ele>
        <time>2016-07-31T10:11:30Z</time>
      </trkpt>
      <trkpt lat="42.44214" lon="0.05869">
        <ele>784.2</ele>
        <time>2016-07-31T10:11:31Z</time>
      </trkpt>
      <trkpt lat="42.44215" lon="0.05875">
        <ele>782.7</ele>
        <time>2016-07-31T10:11:33Z</time>
      </trkpt>
      <trkpt lat="42.44217" lon="0.05881">
        <ele>781.6</ele>
        <time>2016-07-31T10:11:35Z</time>
      </trkpt>
      <trkpt lat="42.44219" lon="0.05888">
        <ele>780.1</ele>
        <time>2016-07-31T10:11:37Z</time>
      </trkpt>
      <trkpt lat="42.44221" lon="0.05892">
        <ele>779.4</ele>
        <time>2016-07-31T10:11:38Z</time>
      </trkpt>
      <trkpt lat="42.44222" lon="0.05896">
        <ele>778.7</ele>
        <time>2016-07-31T10:11:39Z</time>
      </trkpt>
      <trkpt lat="42.44224" lon="0.05899">
        <ele>778.1</ele>
        <time>2016-07-31T10:11:40Z</time>
      </trkpt>
      <trkpt lat="42.44225" lon="0.05904">
        <ele>777</ele>
        <time>2016-07-31T10:11:42Z</time>
      </trkpt>
      <trkpt lat="42.44225" lon="0.05909">
        <ele>775.8</ele>
        <time>2016-07-31T10:11:44Z</time>
      </trkpt>
      <trkpt lat="42.44224" lon="0.05914">
        <ele>774.6</ele>
        <time>2016-07-31T10:11:46Z</time>
      </trkpt>
      <trkpt lat="42.44226" lon="0.05919">
        <ele>773.6</ele>
        <time>2016-07-31T10:11:48Z</time>
      </trkpt>
      <trkpt lat="42.44229" lon="0.05922">
        <ele>773.2</ele>
        <time>2016-07-31T10:11:50Z</time>
      </trkpt>
      <trkpt lat="42.44233" lon="0.05926">
        <ele>772.6</ele>
        <time>2016-07-31T10:11:52Z</time>
      </trkpt>
      <trkpt lat="42.44236" lon="0.05931">
        <ele>771.8</ele>
        <time>2016-07-31T10:11:54Z</time>
      </trkpt>
      <trkpt lat="42.44238" lon="0.05935">
        <ele>771</ele>
        <time>2016-07-31T10:11:56Z</time>
      </trkpt>
      <trkpt lat="42.4424" lon="0.0594">
        <ele>770</ele>
        <time>2016-07-31T10:11:58Z</time>
      </trkpt>
      <trkpt lat="42.44241" lon="0.05946">
        <ele>768.6</ele>
        <time>2016-07-31T10:12:00Z</time>
      </trkpt>
      <trkpt lat="42.44242" lon="0.05952">
        <ele>767.4</ele>
        <time>2016-07-31T10:12:02Z</time>
      </trkpt>
      <trkpt lat="42.44244" lon="0.05955">
        <ele>766.7</ele>
        <time>2016-07-31T10:12:04Z</time>
      </trkpt>
      <trkpt lat="42.44247" lon="0.05958">
        <ele>766.4</ele>
        <time>2016-07-31T10:12:06Z</time>
      </trkpt>
      <trkpt lat="42.44249" lon="0.05961">
        <ele>765.4</ele>
        <time>2016-07-31T10:12:18Z</time>
      </trkpt>
      <trkpt lat="42.4425" lon="0.05965">
        <ele>764.5</ele>
        <time>2016-07-31T10:12:34Z</time>
      </trkpt>
      <trkpt lat="42.44251" lon="0.05969">
        <ele>763.4</ele>
        <time>2016-07-31T10:12:38Z</time>
      </trkpt>
      <trkpt lat="42.44252" lon="0.05972">
        <ele>762.5</ele>
        <time>2016-07-31T10:12:42Z</time>
      </trkpt>
      <trkpt lat="42.44254" lon="0.05976">
        <ele>761.3</ele>
        <time>2016-07-31T10:12:51Z</time>
      </trkpt>
      <trkpt lat="42.44255" lon="0.0598">
        <ele>760.1</ele>
        <time>2016-07-31T10:12:55Z</time>
      </trkpt>
      <trkpt lat="42.44255" lon="0.05984">
        <ele>758.9</ele>
        <time>2016-07-31T10:13:02Z</time>
      </trkpt>
      <trkpt lat="42.44256" lon="0.05988">
        <ele>757.8</ele>
        <time>2016-07-31T10:13:11Z</time>
      </trkpt>
      <trkpt lat="42.44258" lon="0.05991">
        <ele>757.2</ele>
        <time>2016-07-31T10:13:16Z</time>
      </trkpt>
      <trkpt lat="42.4426" lon="0.05994">
        <ele>756.3</ele>
        <time>2016-07-31T10:13:19Z</time>
      </trkpt>
      <trkpt lat="42.44263" lon="0.05998">
        <ele>755.3</ele>
        <time>2016-07-31T10:13:22Z</time>
      </trkpt>
      <trkpt lat="42.44265" lon="0.06">
        <ele>754.9</ele>
        <time>2016-07-31T10:13:26Z</time>
      </trkpt>
      <trkpt lat="42.44266" lon="0.06004">
        <ele>753.7</ele>
        <time>2016-07-31T10:13:32Z</time>
      </trkpt>
      <trkpt lat="42.44268" lon="0.06006">
        <ele>753</ele>
        <time>2016-07-31T10:13:37Z</time>
      </trkpt>
      <trkpt lat="42.44269" lon="0.0601">
        <ele>751.8</ele>
        <time>2016-07-31T10:13:42Z</time>
      </trkpt>
      <trkpt lat="42.44269" lon="0.06014">
        <ele>750.5</ele>
        <time>2016-07-31T10:13:45Z</time>
      </trkpt>
      <trkpt lat="42.44271" lon="0.06018">
        <ele>749.5</ele>
        <time>2016-07-31T10:13:50Z</time>
      </trkpt>
      <trkpt lat="42.44273" lon="0.0602">
        <ele>748.9</ele>
        <time>2016-07-31T10:13:57Z</time>
      </trkpt>
      <trkpt lat="42.44275" lon="0.06026">
        <ele>747.2</ele>
        <time>2016-07-31T10:13:59Z</time>
      </trkpt>
      <trkpt lat="42.44276" lon="0.0603">
        <ele>746</ele>
        <time>2016-07-31T10:14:00Z</time>
      </trkpt>
      <trkpt lat="42.44278" lon="0.06035">
        <ele>744.6</ele>
        <time>2016-07-31T10:14:01Z</time>
      </trkpt>
      <trkpt lat="42.44279" lon="0.06039">
        <ele>743.1</ele>
        <time>2016-07-31T10:14:02Z</time>
      </trkpt>
      <trkpt lat="42.44281" lon="0.06043">
        <ele>742.2</ele>
        <time>2016-07-31T10:14:03Z</time>
      </trkpt>
      <trkpt lat="42.44284" lon="0.06049">
        <ele>740.2</ele>
        <time>2016-07-31T10:14:05Z</time>
      </trkpt>
      <trkpt lat="42.44287" lon="0.06054">
        <ele>738.7</ele>
        <time>2016-07-31T10:14:06Z</time>
      </trkpt>
      <trkpt lat="42.4429" lon="0.06059">
        <ele>737.2</ele>
        <time>2016-07-31T10:14:07Z</time>
      </trkpt>
      <trkpt lat="42.44293" lon="0.06065">
        <ele>735.7</ele>
        <time>2016-07-31T10:14:08Z</time>
      </trkpt>
      <trkpt lat="42.44296" lon="0.0607">
        <ele>734.1</ele>
        <time>2016-07-31T10:14:09Z</time>
      </trkpt>
      <trkpt lat="42.44299" lon="0.06077">
        <ele>732.4</ele>
        <time>2016-07-31T10:14:10Z</time>
      </trkpt>
      <trkpt lat="42.44301" lon="0.06083">
        <ele>730.8</ele>
        <time>2016-07-31T10:14:11Z</time>
      </trkpt>
      <trkpt lat="42.44304" lon="0.06087">
        <ele>729.6</ele>
        <time>2016-07-31T10:14:12Z</time>
      </trkpt>
      <trkpt lat="42.44307" lon="0.06092">
        <ele>728.6</ele>
        <time>2016-07-31T10:14:13Z</time>
      </trkpt>
      <trkpt lat="42.4431" lon="0.06096">
        <ele>727.7</ele>
        <time>2016-07-31T10:14:14Z</time>
      </trkpt>
      <trkpt lat="42.44313" lon="0.06099">
        <ele>726.8</ele>
        <time>2016-07-31T10:14:15Z</time>
      </trkpt>
      <trkpt lat="42.44316" lon="0.06103">
        <ele>726.1</ele>
        <time>2016-07-31T10:14:16Z</time>
      </trkpt>
      <trkpt lat="42.44319" lon="0.06105">
        <ele>725.6</ele>
        <time>2016-07-31T10:14:17Z</time>
      </trkpt>
      <trkpt lat="42.44323" lon="0.06109">
        <ele>724.9</ele>
        <time>2016-07-31T10:14:19Z</time>
      </trkpt>
      <trkpt lat="42.44325" lon="0.06112">
        <ele>724.1</ele>
        <time>2016-07-31T10:14:20Z</time>
      </trkpt>
      <trkpt lat="42.44327" lon="0.06116">
        <ele>723.2</ele>
        <time>2016-07-31T10:14:21Z</time>
      </trkpt>
      <trkpt lat="42.44328" lon="0.0612">
        <ele>722</ele>
        <time>2016-07-31T10:14:22Z</time>
      </trkpt>
      <trkpt lat="42.4433" lon="0.06125">
        <ele>720.6</ele>
        <time>2016-07-31T10:14:24Z</time>
      </trkpt>
      <trkpt lat="42.44332" lon="0.06128">
        <ele>720</ele>
        <time>2016-07-31T10:14:26Z</time>
      </trkpt>
      <trkpt lat="42.44334" lon="0.06133">
        <ele>718.7</ele>
        <time>2016-07-31T10:14:28Z</time>
      </trkpt>
      <trkpt lat="42.44335" lon="0.06138">
        <ele>717.5</ele>
        <time>2016-07-31T10:14:30Z</time>
      </trkpt>
      <trkpt lat="42.44337" lon="0.06142">
        <ele>716.6</ele>
        <time>2016-07-31T10:14:31Z</time>
      </trkpt>
      <trkpt lat="42.44338" lon="0.06146">
        <ele>715.7</ele>
        <time>2016-07-31T10:14:32Z</time>
      </trkpt>
      <trkpt lat="42.44339" lon="0.06151">
        <ele>714.2</ele>
        <time>2016-07-31T10:14:34Z</time>
      </trkpt>
      <trkpt lat="42.44336" lon="0.06151">
        <ele>714</ele>
        <time>2016-07-31T10:15:45Z</time>
      </trkpt>
      <trkpt lat="42.44332" lon="0.06151">
        <ele>713.6</ele>
        <time>2016-07-31T10:15:47Z</time>
      </trkpt>
      <trkpt lat="42.44328" lon="0.06151">
        <ele>713.1</ele>
        <time>2016-07-31T10:15:49Z</time>
      </trkpt>
      <trkpt lat="42.44326" lon="0.06153">
        <ele>712.1</ele>
        <time>2016-07-31T10:15:52Z</time>
      </trkpt>
      <trkpt lat="42.44327" lon="0.06157">
        <ele>711.4</ele>
        <time>2016-07-31T10:15:56Z</time>
      </trkpt>
      <trkpt lat="42.44332" lon="0.06158">
        <ele>711.4</ele>
        <time>2016-07-31T10:15:59Z</time>
      </trkpt>
      <trkpt lat="42.44335" lon="0.06162">
        <ele>710.9</ele>
        <time>2016-07-31T10:16:01Z</time>
      </trkpt>
      <trkpt lat="42.44336" lon="0.06167">
        <ele>709.4</ele>
        <time>2016-07-31T10:16:03Z</time>
      </trkpt>
      <trkpt lat="42.44334" lon="0.06173">
        <ele>707.6</ele>
        <time>2016-07-31T10:16:05Z</time>
      </trkpt>
      <trkpt lat="42.44332" lon="0.06176">
        <ele>706.5</ele>
        <time>2016-07-31T10:16:07Z</time>
      </trkpt>
      <trkpt lat="42.44335" lon="0.06177">
        <ele>706.6</ele>
        <time>2016-07-31T10:16:17Z</time>
      </trkpt>
      <trkpt lat="42.44334" lon="0.06181">
        <ele>705.4</ele>
        <time>2016-07-31T10:16:25Z</time>
      </trkpt>
      <trkpt lat="42.44333" lon="0.06185">
        <ele>704</ele>
        <time>2016-07-31T10:16:28Z</time>
      </trkpt>
      <trkpt lat="42.44331" lon="0.06189">
        <ele>702.7</ele>
        <time>2016-07-31T10:16:30Z</time>
      </trkpt>
      <trkpt lat="42.44332" lon="0.06193">
        <ele>701.8</ele>
        <time>2016-07-31T10:16:34Z</time>
      </trkpt>
      <trkpt lat="42.44336" lon="0.06193">
        <ele>702.2</ele>
        <time>2016-07-31T10:16:36Z</time>
      </trkpt>
      <trkpt lat="42.44339" lon="0.06192">
        <ele>702.8</ele>
        <time>2016-07-31T10:16:38Z</time>
      </trkpt>
      <trkpt lat="42.4434" lon="0.06198">
        <ele>701.3</ele>
        <time>2016-07-31T10:16:41Z</time>
      </trkpt>
      <trkpt lat="42.44338" lon="0.06202">
        <ele>699.8</ele>
        <time>2016-07-31T10:16:43Z</time>
      </trkpt>
      <trkpt lat="42.44337" lon="0.06207">
        <ele>698.4</ele>
        <time>2016-07-31T10:16:45Z</time>
      </trkpt>
      <trkpt lat="42.44341" lon="0.06208">
        <ele>698.6</ele>
        <time>2016-07-31T10:16:49Z</time>
      </trkpt>
      <trkpt lat="42.44345" lon="0.06205">
        <ele>699.8</ele>
        <time>2016-07-31T10:16:51Z</time>
      </trkpt>
      <trkpt lat="42.44348" lon="0.06203">
        <ele>700.8</ele>
        <time>2016-07-31T10:16:53Z</time>
      </trkpt>
      <trkpt lat="42.44351" lon="0.06201">
        <ele>701.8</ele>
        <time>2016-07-31T10:16:55Z</time>
      </trkpt>
      <trkpt lat="42.44353" lon="0.06199">
        <ele>702.8</ele>
        <time>2016-07-31T10:16:57Z</time>
      </trkpt>
      <trkpt lat="42.44356" lon="0.06197">
        <ele>703.6</ele>
        <time>2016-07-31T10:16:59Z</time>
      </trkpt>
      <trkpt lat="42.44359" lon="0.06199">
        <ele>703.4</ele>
        <time>2016-07-31T10:17:09Z</time>
      </trkpt>
      <trkpt lat="42.4436" lon="0.06203">
        <ele>702.4</ele>
        <time>2016-07-31T10:17:15Z</time>
      </trkpt>
      <trkpt lat="42.44359" lon="0.06208">
        <ele>701.1</ele>
        <time>2016-07-31T10:17:18Z</time>
      </trkpt>
      <trkpt lat="42.44357" lon="0.06209">
        <ele>700.5</ele>
        <time>2016-07-31T10:17:21Z</time>
      </trkpt>
      <trkpt lat="42.44355" lon="0.06212">
        <ele>699.1</ele>
        <time>2016-07-31T10:17:25Z</time>
      </trkpt>
      <trkpt lat="42.44354" lon="0.06216">
        <ele>697.8</ele>
        <time>2016-07-31T10:17:28Z</time>
      </trkpt>
      <trkpt lat="42.44357" lon="0.06216">
        <ele>698.3</ele>
        <time>2016-07-31T10:17:35Z</time>
      </trkpt>
      <trkpt lat="42.4436" lon="0.06214">
        <ele>699.2</ele>
        <time>2016-07-31T10:17:39Z</time>
      </trkpt>
      <trkpt lat="42.44364" lon="0.06211">
        <ele>700.5</ele>
        <time>2016-07-31T10:17:42Z</time>
      </trkpt>
      <trkpt lat="42.44368" lon="0.06208">
        <ele>702.3</ele>
        <time>2016-07-31T10:17:44Z</time>
      </trkpt>
      <trkpt lat="42.44372" lon="0.06205">
        <ele>703.4</ele>
        <time>2016-07-31T10:17:45Z</time>
      </trkpt>
      <trkpt lat="42.44375" lon="0.06203">
        <ele>704.4</ele>
        <time>2016-07-31T10:17:46Z</time>
      </trkpt>
      <trkpt lat="42.44379" lon="0.06201">
        <ele>703.6</ele>
        <time>2016-07-31T10:17:47Z</time>
      </trkpt>
      <trkpt lat="42.44381" lon="0.06198">
        <ele>703.3</ele>
        <time>2016-07-31T10:17:48Z</time>
      </trkpt>
      <trkpt lat="42.44383" lon="0.06194">
        <ele>703.4</ele>
        <time>2016-07-31T10:17:50Z</time>
      </trkpt>
      <trkpt lat="42.44386" lon="0.06189">
        <ele>703.7</ele>
        <time>2016-07-31T10:17:52Z</time>
      </trkpt>
      <trkpt lat="42.44388" lon="0.06185">
        <ele>703.8</ele>
        <time>2016-07-31T10:17:53Z</time>
      </trkpt>
      <trkpt lat="42.4439" lon="0.06182">
        <ele>703.8</ele>
        <time>2016-07-31T10:17:54Z</time>
      </trkpt>
      <trkpt lat="42.44391" lon="0.06179">
        <ele>704.3</ele>
        <time>2016-07-31T10:17:55Z</time>
      </trkpt>
      <trkpt lat="42.44392" lon="0.06172">
        <ele>706</ele>
        <time>2016-07-31T10:17:57Z</time>
      </trkpt>
      <trkpt lat="42.44393" lon="0.06166">
        <ele>707.5</ele>
        <time>2016-07-31T10:17:59Z</time>
      </trkpt>
      <trkpt lat="42.44396" lon="0.06161">
        <ele>707.4</ele>
        <time>2016-07-31T10:18:01Z</time>
      </trkpt>
      <trkpt lat="42.44401" lon="0.06159">
        <ele>706</ele>
        <time>2016-07-31T10:18:03Z</time>
      </trkpt>
      <trkpt lat="42.44404" lon="0.06157">
        <ele>705</ele>
        <time>2016-07-31T10:18:05Z</time>
      </trkpt>
      <trkpt lat="42.44406" lon="0.0616">
        <ele>703.4</ele>
        <time>2016-07-31T10:18:09Z</time>
      </trkpt>
      <trkpt lat="42.44409" lon="0.06161">
        <ele>701.9</ele>
        <time>2016-07-31T10:18:12Z</time>
      </trkpt>
      <trkpt lat="42.44411" lon="0.06158">
        <ele>702</ele>
        <time>2016-07-31T10:18:17Z</time>
      </trkpt>
      <trkpt lat="42.44413" lon="0.06155">
        <ele>702.1</ele>
        <time>2016-07-31T10:18:24Z</time>
      </trkpt>
      <trkpt lat="42.44415" lon="0.06153">
        <ele>701.7</ele>
        <time>2016-07-31T10:18:27Z</time>
      </trkpt>
      <trkpt lat="42.44418" lon="0.06151">
        <ele>701.2</ele>
        <time>2016-07-31T10:18:31Z</time>
      </trkpt>
      <trkpt lat="42.44421" lon="0.0615">
        <ele>700.1</ele>
        <time>2016-07-31T10:18:33Z</time>
      </trkpt>
      <trkpt lat="42.44424" lon="0.0615">
        <ele>699</ele>
        <time>2016-07-31T10:18:34Z</time>
      </trkpt>
      <trkpt lat="42.44428" lon="0.06148">
        <ele>697.9</ele>
        <time>2016-07-31T10:18:35Z</time>
      </trkpt>
      <trkpt lat="42.44431" lon="0.06146">
        <ele>697</ele>
        <time>2016-07-31T10:18:36Z</time>
      </trkpt>
      <trkpt lat="42.44434" lon="0.06144">
        <ele>696.5</ele>
        <time>2016-07-31T10:18:37Z</time>
      </trkpt>
      <trkpt lat="42.44437" lon="0.06141">
        <ele>696.1</ele>
        <time>2016-07-31T10:18:38Z</time>
      </trkpt>
      <trkpt lat="42.44439" lon="0.06138">
        <ele>695.9</ele>
        <time>2016-07-31T10:18:39Z</time>
      </trkpt>
      <trkpt lat="42.44443" lon="0.06135">
        <ele>695.3</ele>
        <time>2016-07-31T10:18:41Z</time>
      </trkpt>
      <trkpt lat="42.44448" lon="0.06134">
        <ele>693.7</ele>
        <time>2016-07-31T10:18:43Z</time>
      </trkpt>
      <trkpt lat="42.44452" lon="0.06133">
        <ele>692.3</ele>
        <time>2016-07-31T10:18:45Z</time>
      </trkpt>
      <trkpt lat="42.44454" lon="0.06131">
        <ele>692.1</ele>
        <time>2016-07-31T10:18:47Z</time>
      </trkpt>
      <trkpt lat="42.44455" lon="0.06127">
        <ele>692.6</ele>
        <time>2016-07-31T10:18:50Z</time>
      </trkpt>
      <trkpt lat="42.44453" lon="0.06126">
        <ele>694</ele>
        <time>2016-07-31T10:18:56Z</time>
      </trkpt>
      <trkpt lat="42.44455" lon="0.06123">
        <ele>694</ele>
        <time>2016-07-31T10:19:03Z</time>
      </trkpt>
      <trkpt lat="42.44457" lon="0.06119">
        <ele>694.3</ele>
        <time>2016-07-31T10:19:07Z</time>
      </trkpt>
      <trkpt lat="42.44459" lon="0.06114">
        <ele>694.4</ele>
        <time>2016-07-31T10:19:10Z</time>
      </trkpt>
      <trkpt lat="42.44462" lon="0.06109">
        <ele>693.9</ele>
        <time>2016-07-31T10:19:12Z</time>
      </trkpt>
      <trkpt lat="42.44463" lon="0.06104">
        <ele>694.3</ele>
        <time>2016-07-31T10:19:14Z</time>
      </trkpt>
      <trkpt lat="42.44464" lon="0.061">
        <ele>694.9</ele>
        <time>2016-07-31T10:19:15Z</time>
      </trkpt>
      <trkpt lat="42.44465" lon="0.06096">
        <ele>695.5</ele>
        <time>2016-07-31T10:19:16Z</time>
      </trkpt>
      <trkpt lat="42.44466" lon="0.06092">
        <ele>696</ele>
        <time>2016-07-31T10:19:17Z</time>
      </trkpt>
      <trkpt lat="42.44467" lon="0.06088">
        <ele>696.2</ele>
        <time>2016-07-31T10:19:18Z</time>
      </trkpt>
      <trkpt lat="42.44469" lon="0.06084">
        <ele>695.9</ele>
        <time>2016-07-31T10:19:19Z</time>
      </trkpt>
      <trkpt lat="42.4447" lon="0.06081">
        <ele>695.3</ele>
        <time>2016-07-31T10:19:20Z</time>
      </trkpt>
      <trkpt lat="42.44474" lon="0.06077">
        <ele>693.9</ele>
        <time>2016-07-31T10:19:22Z</time>
      </trkpt>
      <trkpt lat="42.44476" lon="0.06072">
        <ele>693.1</ele>
        <time>2016-07-31T10:19:24Z</time>
      </trkpt>
      <trkpt lat="42.44478" lon="0.06068">
        <ele>693</ele>
        <time>2016-07-31T10:19:26Z</time>
      </trkpt>
      <trkpt lat="42.44481" lon="0.06061">
        <ele>692.9</ele>
        <time>2016-07-31T10:19:28Z</time>
      </trkpt>
      <trkpt lat="42.44483" lon="0.06057">
        <ele>692</ele>
        <time>2016-07-31T10:19:29Z</time>
      </trkpt>
      <trkpt lat="42.44486" lon="0.06053">
        <ele>690.6</ele>
        <time>2016-07-31T10:19:30Z</time>
      </trkpt>
      <trkpt lat="42.44489" lon="0.06051">
        <ele>688.8</ele>
        <time>2016-07-31T10:19:32Z</time>
      </trkpt>
      <trkpt lat="42.4449" lon="0.06055">
        <ele>687</ele>
        <time>2016-07-31T10:19:34Z</time>
      </trkpt>
      <trkpt lat="42.44489" lon="0.06059">
        <ele>686.6</ele>
        <time>2016-07-31T10:19:35Z</time>
      </trkpt>
      <trkpt lat="42.44488" lon="0.06063">
        <ele>686.6</ele>
        <time>2016-07-31T10:19:36Z</time>
      </trkpt>
      <trkpt lat="42.44486" lon="0.06067">
        <ele>686.8</ele>
        <time>2016-07-31T10:19:37Z</time>
      </trkpt>
      <trkpt lat="42.44485" lon="0.06071">
        <ele>686.8</ele>
        <time>2016-07-31T10:19:38Z</time>
      </trkpt>
      <trkpt lat="42.44484" lon="0.06074">
        <ele>686.6</ele>
        <time>2016-07-31T10:19:39Z</time>
      </trkpt>
      <trkpt lat="42.44482" lon="0.06078">
        <ele>687.3</ele>
        <time>2016-07-31T10:19:40Z</time>
      </trkpt>
      <trkpt lat="42.4448" lon="0.06082">
        <ele>687.5</ele>
        <time>2016-07-31T10:19:42Z</time>
      </trkpt>
      <trkpt lat="42.44484" lon="0.06084">
        <ele>683.7</ele>
        <time>2016-07-31T10:19:52Z</time>
      </trkpt>
      <trkpt lat="42.44488" lon="0.06083">
        <ele>681.6</ele>
        <time>2016-07-31T10:19:59Z</time>
      </trkpt>
      <trkpt lat="42.44488" lon="0.06087">
        <ele>680</ele>
        <time>2016-07-31T10:20:55Z</time>
      </trkpt>
      <trkpt lat="42.4449" lon="0.06091">
        <ele>677.6</ele>
        <time>2016-07-31T10:20:57Z</time>
      </trkpt>
      <trkpt lat="42.44491" lon="0.06098">
        <ele>674.7</ele>
        <time>2016-07-31T10:20:59Z</time>
      </trkpt>
      <trkpt lat="42.44493" lon="0.06104">
        <ele>671.6</ele>
        <time>2016-07-31T10:21:01Z</time>
      </trkpt>
      <trkpt lat="42.44495" lon="0.06109">
        <ele>668.8</ele>
        <time>2016-07-31T10:21:03Z</time>
      </trkpt>
      <trkpt lat="42.44499" lon="0.06109">
        <ele>665.8</ele>
        <time>2016-07-31T10:21:05Z</time>
      </trkpt>
      <trkpt lat="42.44503" lon="0.0611">
        <ele>662.5</ele>
        <time>2016-07-31T10:21:07Z</time>
      </trkpt>
      <trkpt lat="42.44505" lon="0.06113">
        <ele>660.5</ele>
        <time>2016-07-31T10:21:09Z</time>
      </trkpt>
      <trkpt lat="42.44504" lon="0.06119">
        <ele>659.6</ele>
        <time>2016-07-31T10:21:11Z</time>
      </trkpt>
      <trkpt lat="42.44502" lon="0.06125">
        <ele>659.3</ele>
        <time>2016-07-31T10:21:13Z</time>
      </trkpt>
      <trkpt lat="42.44506" lon="0.06124">
        <ele>656.6</ele>
        <time>2016-07-31T10:21:19Z</time>
      </trkpt>
      <trkpt lat="42.44509" lon="0.06122">
        <ele>655.3</ele>
        <time>2016-07-31T10:21:22Z</time>
      </trkpt>
      <trkpt lat="42.4451" lon="0.06126">
        <ele>653.6</ele>
        <time>2016-07-31T10:21:30Z</time>
      </trkpt>
      <trkpt lat="42.44507" lon="0.0613">
        <ele>654.4</ele>
        <time>2016-07-31T10:21:32Z</time>
      </trkpt>
      <trkpt lat="42.44504" lon="0.06134">
        <ele>655.9</ele>
        <time>2016-07-31T10:21:34Z</time>
      </trkpt>
      <trkpt lat="42.44501" lon="0.06136">
        <ele>657.4</ele>
        <time>2016-07-31T10:21:36Z</time>
      </trkpt>
      <trkpt lat="42.44499" lon="0.0614">
        <ele>658</ele>
        <time>2016-07-31T10:21:38Z</time>
      </trkpt>
      <trkpt lat="42.44499" lon="0.06144">
        <ele>657.3</ele>
        <time>2016-07-31T10:21:40Z</time>
      </trkpt>
      <trkpt lat="42.445" lon="0.06149">
        <ele>655.8</ele>
        <time>2016-07-31T10:21:42Z</time>
      </trkpt>
      <trkpt lat="42.44501" lon="0.06152">
        <ele>654.3</ele>
        <time>2016-07-31T10:21:44Z</time>
      </trkpt>
      <trkpt lat="42.445" lon="0.06158">
        <ele>653.5</ele>
        <time>2016-07-31T10:21:46Z</time>
      </trkpt>
      <trkpt lat="42.44499" lon="0.06161">
        <ele>653.4</ele>
        <time>2016-07-31T10:21:47Z</time>
      </trkpt>
      <trkpt lat="42.44497" lon="0.06166">
        <ele>653.3</ele>
        <time>2016-07-31T10:21:48Z</time>
      </trkpt>
      <trkpt lat="42.44496" lon="0.0617">
        <ele>653.1</ele>
        <time>2016-07-31T10:21:49Z</time>
      </trkpt>
      <trkpt lat="42.44495" lon="0.06174">
        <ele>652.9</ele>
        <time>2016-07-31T10:21:50Z</time>
      </trkpt>
      <trkpt lat="42.44494" lon="0.06178">
        <ele>652.5</ele>
        <time>2016-07-31T10:21:51Z</time>
      </trkpt>
      <trkpt lat="42.44494" lon="0.06185">
        <ele>650.9</ele>
        <time>2016-07-31T10:21:53Z</time>
      </trkpt>
      <trkpt lat="42.44494" lon="0.06189">
        <ele>650.2</ele>
        <time>2016-07-31T10:21:54Z</time>
      </trkpt>
      <trkpt lat="42.44493" lon="0.06193">
        <ele>649.8</ele>
        <time>2016-07-31T10:21:55Z</time>
      </trkpt>
      <trkpt lat="42.44492" lon="0.06197">
        <ele>649.3</ele>
        <time>2016-07-31T10:21:56Z</time>
      </trkpt>
      <trkpt lat="42.4449" lon="0.06202">
        <ele>649.1</ele>
        <time>2016-07-31T10:21:57Z</time>
      </trkpt>
      <trkpt lat="42.44489" lon="0.06206">
        <ele>649.1</ele>
        <time>2016-07-31T10:21:58Z</time>
      </trkpt>
      <trkpt lat="42.44487" lon="0.0621">
        <ele>649</ele>
        <time>2016-07-31T10:21:59Z</time>
      </trkpt>
      <trkpt lat="42.44485" lon="0.06213">
        <ele>649.3</ele>
        <time>2016-07-31T10:22:00Z</time>
      </trkpt>
      <trkpt lat="42.44483" lon="0.06218">
        <ele>649.2</ele>
        <time>2016-07-31T10:22:01Z</time>
      </trkpt>
      <trkpt lat="42.44481" lon="0.06223">
        <ele>648.8</ele>
        <time>2016-07-31T10:22:02Z</time>
      </trkpt>
      <trkpt lat="42.44478" lon="0.06228">
        <ele>648.7</ele>
        <time>2016-07-31T10:22:03Z</time>
      </trkpt>
      <trkpt lat="42.44476" lon="0.06234">
        <ele>648.4</ele>
        <time>2016-07-31T10:22:04Z</time>
      </trkpt>
      <trkpt lat="42.44475" lon="0.06239">
        <ele>647.4</ele>
        <time>2016-07-31T10:22:05Z</time>
      </trkpt>
      <trkpt lat="42.44474" lon="0.06242">
        <ele>646.3</ele>
        <time>2016-07-31T10:22:06Z</time>
      </trkpt>
      <trkpt lat="42.44475" lon="0.06246">
        <ele>644.6</ele>
        <time>2016-07-31T10:22:07Z</time>
      </trkpt>
      <trkpt lat="42.44477" lon="0.0625">
        <ele>642.6</ele>
        <time>2016-07-31T10:22:08Z</time>
      </trkpt>
      <trkpt lat="42.44479" lon="0.06253">
        <ele>640.5</ele>
        <time>2016-07-31T10:22:09Z</time>
      </trkpt>
      <trkpt lat="42.44482" lon="0.06258">
        <ele>637.2</ele>
        <time>2016-07-31T10:22:11Z</time>
      </trkpt>
      <trkpt lat="42.44484" lon="0.06261">
        <ele>635.4</ele>
        <time>2016-07-31T10:22:12Z</time>
      </trkpt>
      <trkpt lat="42.44485" lon="0.06265">
        <ele>633.8</ele>
        <time>2016-07-31T10:22:13Z</time>
      </trkpt>
      <trkpt lat="42.44485" lon="0.0627">
        <ele>632.2</ele>
        <time>2016-07-31T10:22:14Z</time>
      </trkpt>
      <trkpt lat="42.44485" lon="0.06275">
        <ele>630.9</ele>
        <time>2016-07-31T10:22:15Z</time>
      </trkpt>
      <trkpt lat="42.44483" lon="0.06281">
        <ele>629.8</ele>
        <time>2016-07-31T10:22:16Z</time>
      </trkpt>
      <trkpt lat="42.44482" lon="0.06287">
        <ele>628.8</ele>
        <time>2016-07-31T10:22:17Z</time>
      </trkpt>
      <trkpt lat="42.4448" lon="0.06293">
        <ele>627.8</ele>
        <time>2016-07-31T10:22:18Z</time>
      </trkpt>
      <trkpt lat="42.44478" lon="0.06298">
        <ele>627.3</ele>
        <time>2016-07-31T10:22:19Z</time>
      </trkpt>
      <trkpt lat="42.44476" lon="0.06305">
        <ele>626.6</ele>
        <time>2016-07-31T10:22:20Z</time>
      </trkpt>
      <trkpt lat="42.44475" lon="0.06311">
        <ele>625.8</ele>
        <time>2016-07-31T10:22:21Z</time>
      </trkpt>
      <trkpt lat="42.44473" lon="0.06316">
        <ele>625.1</ele>
        <time>2016-07-31T10:22:22Z</time>
      </trkpt>
      <trkpt lat="42.44471" lon="0.06321">
        <ele>624.6</ele>
        <time>2016-07-31T10:22:23Z</time>
      </trkpt>
      <trkpt lat="42.4447" lon="0.06326">
        <ele>623.8</ele>
        <time>2016-07-31T10:22:24Z</time>
      </trkpt>
      <trkpt lat="42.44468" lon="0.06331">
        <ele>622.9</ele>
        <time>2016-07-31T10:22:25Z</time>
      </trkpt>
      <trkpt lat="42.44467" lon="0.06337">
        <ele>621.9</ele>
        <time>2016-07-31T10:22:26Z</time>
      </trkpt>
      <trkpt lat="42.44466" lon="0.06342">
        <ele>620.8</ele>
        <time>2016-07-31T10:22:27Z</time>
      </trkpt>
      <trkpt lat="42.44464" lon="0.06348">
        <ele>619.8</ele>
        <time>2016-07-31T10:22:28Z</time>
      </trkpt>
      <trkpt lat="42.44463" lon="0.06354">
        <ele>618.6</ele>
        <time>2016-07-31T10:22:29Z</time>
      </trkpt>
      <trkpt lat="42.44462" lon="0.0636">
        <ele>617.3</ele>
        <time>2016-07-31T10:22:30Z</time>
      </trkpt>
      <trkpt lat="42.4446" lon="0.06366">
        <ele>616</ele>
        <time>2016-07-31T10:22:31Z</time>
      </trkpt>
      <trkpt lat="42.44459" lon="0.06372">
        <ele>614.7</ele>
        <time>2016-07-31T10:22:32Z</time>
      </trkpt>
      <trkpt lat="42.44458" lon="0.06377">
        <ele>613.6</ele>
        <time>2016-07-31T10:22:33Z</time>
      </trkpt>
      <trkpt lat="42.44457" lon="0.06383">
        <ele>613</ele>
        <time>2016-07-31T10:22:34Z</time>
      </trkpt>
      <trkpt lat="42.44456" lon="0.06388">
        <ele>612.4</ele>
        <time>2016-07-31T10:22:35Z</time>
      </trkpt>
      <trkpt lat="42.44455" lon="0.06394">
        <ele>611.7</ele>
        <time>2016-07-31T10:22:36Z</time>
      </trkpt>
      <trkpt lat="42.44454" lon="0.064">
        <ele>611</ele>
        <time>2016-07-31T10:22:37Z</time>
      </trkpt>
      <trkpt lat="42.44453" lon="0.06405">
        <ele>610.3</ele>
        <time>2016-07-31T10:22:38Z</time>
      </trkpt>
      <trkpt lat="42.44451" lon="0.06411">
        <ele>609.7</ele>
        <time>2016-07-31T10:22:39Z</time>
      </trkpt>
      <trkpt lat="42.44449" lon="0.06416">
        <ele>609.2</ele>
        <time>2016-07-31T10:22:40Z</time>
      </trkpt>
      <trkpt lat="42.44447" lon="0.06421">
        <ele>608.7</ele>
        <time>2016-07-31T10:22:41Z</time>
      </trkpt>
      <trkpt lat="42.44445" lon="0.06426">
        <ele>608.2</ele>
        <time>2016-07-31T10:22:42Z</time>
      </trkpt>
      <trkpt lat="42.44443" lon="0.06431">
        <ele>607.6</ele>
        <time>2016-07-31T10:22:43Z</time>
      </trkpt>
      <trkpt lat="42.44441" lon="0.06437">
        <ele>606.9</ele>
        <time>2016-07-31T10:22:44Z</time>
      </trkpt>
      <trkpt lat="42.44439" lon="0.06443">
        <ele>606.2</ele>
        <time>2016-07-31T10:22:45Z</time>
      </trkpt>
      <trkpt lat="42.44437" lon="0.06448">
        <ele>605.4</ele>
        <time>2016-07-31T10:22:46Z</time>
      </trkpt>
      <trkpt lat="42.44435" lon="0.06454">
        <ele>604.6</ele>
        <time>2016-07-31T10:22:47Z</time>
      </trkpt>
      <trkpt lat="42.44432" lon="0.06459">
        <ele>603.9</ele>
        <time>2016-07-31T10:22:48Z</time>
      </trkpt>
      <trkpt lat="42.4443" lon="0.06465">
        <ele>603.8</ele>
        <time>2016-07-31T10:22:49Z</time>
      </trkpt>
      <trkpt lat="42.44427" lon="0.0647">
        <ele>603.8</ele>
        <time>2016-07-31T10:22:50Z</time>
      </trkpt>
      <trkpt lat="42.44425" lon="0.06476">
        <ele>603.7</ele>
        <time>2016-07-31T10:22:51Z</time>
      </trkpt>
      <trkpt lat="42.44422" lon="0.06481">
        <ele>603.5</ele>
        <time>2016-07-31T10:22:52Z</time>
      </trkpt>
      <trkpt lat="42.44419" lon="0.06486">
        <ele>603.4</ele>
        <time>2016-07-31T10:22:53Z</time>
      </trkpt>
      <trkpt lat="42.44417" lon="0.06491">
        <ele>603.3</ele>
        <time>2016-07-31T10:22:54Z</time>
      </trkpt>
      <trkpt lat="42.44414" lon="0.06496">
        <ele>603.1</ele>
        <time>2016-07-31T10:22:55Z</time>
      </trkpt>
      <trkpt lat="42.44411" lon="0.06501">
        <ele>602.9</ele>
        <time>2016-07-31T10:22:56Z</time>
      </trkpt>
      <trkpt lat="42.44409" lon="0.06507">
        <ele>602.6</ele>
        <time>2016-07-31T10:22:57Z</time>
      </trkpt>
      <trkpt lat="42.44406" lon="0.06512">
        <ele>602.4</ele>
        <time>2016-07-31T10:22:58Z</time>
      </trkpt>
      <trkpt lat="42.44403" lon="0.06517">
        <ele>602.1</ele>
        <time>2016-07-31T10:22:59Z</time>
      </trkpt>
      <trkpt lat="42.444" lon="0.06522">
        <ele>601.8</ele>
        <time>2016-07-31T10:23:00Z</time>
      </trkpt>
      <trkpt lat="42.44398" lon="0.06527">
        <ele>601.6</ele>
        <time>2016-07-31T10:23:01Z</time>
      </trkpt>
      <trkpt lat="42.44395" lon="0.06531">
        <ele>601.2</ele>
        <time>2016-07-31T10:23:02Z</time>
      </trkpt>
      <trkpt lat="42.44393" lon="0.06535">
        <ele>601</ele>
        <time>2016-07-31T10:23:03Z</time>
      </trkpt>
      <trkpt lat="42.44391" lon="0.06539">
        <ele>600.7</ele>
        <time>2016-07-31T10:23:04Z</time>
      </trkpt>
      <trkpt lat="42.44387" lon="0.06543">
        <ele>600.6</ele>
        <time>2016-07-31T10:23:06Z</time>
      </trkpt>
      <trkpt lat="42.44384" lon="0.06543">
        <ele>600.9</ele>
        <time>2016-07-31T10:23:07Z</time>
      </trkpt>
      <trkpt lat="42.4438" lon="0.06542">
        <ele>601.4</ele>
        <time>2016-07-31T10:23:08Z</time>
      </trkpt>
      <trkpt lat="42.44377" lon="0.06541">
        <ele>601.9</ele>
        <time>2016-07-31T10:23:09Z</time>
      </trkpt>
      <trkpt lat="42.44373" lon="0.06541">
        <ele>602.2</ele>
        <time>2016-07-31T10:23:10Z</time>
      </trkpt>
      <trkpt lat="42.4437" lon="0.06542">
        <ele>602.4</ele>
        <time>2016-07-31T10:23:11Z</time>
      </trkpt>
      <trkpt lat="42.44367" lon="0.06542">
        <ele>602.5</ele>
        <time>2016-07-31T10:23:12Z</time>
      </trkpt>
      <trkpt lat="42.44362" lon="0.06544">
        <ele>602.7</ele>
        <time>2016-07-31T10:23:14Z</time>
      </trkpt>
      <trkpt lat="42.44357" lon="0.06547">
        <ele>602.9</ele>
        <time>2016-07-31T10:23:16Z</time>
      </trkpt>
      <trkpt lat="42.44353" lon="0.06549">
        <ele>603</ele>
        <time>2016-07-31T10:23:18Z</time>
      </trkpt>
      <trkpt lat="42.4435" lon="0.06552">
        <ele>603</ele>
        <time>2016-07-31T10:23:20Z</time>
      </trkpt>
      <trkpt lat="42.44346" lon="0.06555">
        <ele>603.1</ele>
        <time>2016-07-31T10:23:22Z</time>
      </trkpt>
      <trkpt lat="42.44343" lon="0.06558">
        <ele>603</ele>
        <time>2016-07-31T10:23:24Z</time>
      </trkpt>
      <trkpt lat="42.44341" lon="0.0656">
        <ele>603</ele>
        <time>2016-07-31T10:23:26Z</time>
      </trkpt>
      <trkpt lat="42.44338" lon="0.06563">
        <ele>603</ele>
        <time>2016-07-31T10:23:29Z</time>
      </trkpt>
      <trkpt lat="42.44339" lon="0.06567">
        <ele>602.7</ele>
        <time>2016-07-31T10:23:44Z</time>
      </trkpt>
      <trkpt lat="42.44337" lon="0.06563">
        <ele>603.1</ele>
        <time>2016-07-31T10:28:45Z</time>
      </trkpt>
      <trkpt lat="42.44333" lon="0.06561">
        <ele>603.5</ele>
        <time>2016-07-31T10:28:48Z</time>
      </trkpt>
      <trkpt lat="42.44329" lon="0.06562">
        <ele>603.7</ele>
        <time>2016-07-31T10:28:50Z</time>
      </trkpt>
      <trkpt lat="42.44325" lon="0.06565">
        <ele>603.7</ele>
        <time>2016-07-31T10:28:52Z</time>
      </trkpt>
      <trkpt lat="42.44322" lon="0.06568">
        <ele>603.7</ele>
        <time>2016-07-31T10:28:54Z</time>
      </trkpt>
      <trkpt lat="42.44318" lon="0.06571">
        <ele>603.8</ele>
        <time>2016-07-31T10:28:56Z</time>
      </trkpt>
      <trkpt lat="42.44314" lon="0.06573">
        <ele>603.8</ele>
        <time>2016-07-31T10:28:58Z</time>
      </trkpt>
      <trkpt lat="42.4431" lon="0.06576">
        <ele>603.8</ele>
        <time>2016-07-31T10:29:00Z</time>
      </trkpt>
      <trkpt lat="42.44308" lon="0.06579">
        <ele>603.8</ele>
        <time>2016-07-31T10:29:01Z</time>
      </trkpt>
      <trkpt lat="42.44306" lon="0.06581">
        <ele>603.7</ele>
        <time>2016-07-31T10:29:02Z</time>
      </trkpt>
      <trkpt lat="42.44304" lon="0.06584">
        <ele>603.7</ele>
        <time>2016-07-31T10:29:03Z</time>
      </trkpt>
      <trkpt lat="42.44301" lon="0.06586">
        <ele>603.7</ele>
        <time>2016-07-31T10:29:04Z</time>
      </trkpt>
      <trkpt lat="42.44299" lon="0.06588">
        <ele>603.6</ele>
        <time>2016-07-31T10:29:05Z</time>
      </trkpt>
      <trkpt lat="42.44296" lon="0.06591">
        <ele>603.6</ele>
        <time>2016-07-31T10:29:06Z</time>
      </trkpt>
      <trkpt lat="42.44294" lon="0.06593">
        <ele>603.6</ele>
        <time>2016-07-31T10:29:07Z</time>
      </trkpt>
      <trkpt lat="42.44291" lon="0.06595">
        <ele>603.5</ele>
        <time>2016-07-31T10:29:08Z</time>
      </trkpt>
      <trkpt lat="42.44289" lon="0.06598">
        <ele>603.3</ele>
        <time>2016-07-31T10:29:09Z</time>
      </trkpt>
      <trkpt lat="42.44286" lon="0.066">
        <ele>603.1</ele>
        <time>2016-07-31T10:29:10Z</time>
      </trkpt>
      <trkpt lat="42.44284" lon="0.06602">
        <ele>602.9</ele>
        <time>2016-07-31T10:29:11Z</time>
      </trkpt>
      <trkpt lat="42.44281" lon="0.06604">
        <ele>602.7</ele>
        <time>2016-07-31T10:29:12Z</time>
      </trkpt>
      <trkpt lat="42.44279" lon="0.06607">
        <ele>602.5</ele>
        <time>2016-07-31T10:29:13Z</time>
      </trkpt>
      <trkpt lat="42.44276" lon="0.06609">
        <ele>602.2</ele>
        <time>2016-07-31T10:29:14Z</time>
      </trkpt>
      <trkpt lat="42.44273" lon="0.06612">
        <ele>602</ele>
        <time>2016-07-31T10:29:15Z</time>
      </trkpt>
      <trkpt lat="42.44271" lon="0.06615">
        <ele>601.7</ele>
        <time>2016-07-31T10:29:16Z</time>
      </trkpt>
      <trkpt lat="42.44268" lon="0.06618">
        <ele>601.4</ele>
        <time>2016-07-31T10:29:17Z</time>
      </trkpt>
      <trkpt lat="42.44265" lon="0.06621">
        <ele>601</ele>
        <time>2016-07-31T10:29:18Z</time>
      </trkpt>
      <trkpt lat="42.44261" lon="0.06625">
        <ele>600.6</ele>
        <time>2016-07-31T10:29:19Z</time>
      </trkpt>
      <trkpt lat="42.44258" lon="0.06628">
        <ele>600.4</ele>
        <time>2016-07-31T10:29:20Z</time>
      </trkpt>
      <trkpt lat="42.44255" lon="0.06632">
        <ele>600.1</ele>
        <time>2016-07-31T10:29:21Z</time>
      </trkpt>
      <trkpt lat="42.44252" lon="0.06635">
        <ele>599.9</ele>
        <time>2016-07-31T10:29:22Z</time>
      </trkpt>
      <trkpt lat="42.44249" lon="0.06639">
        <ele>599.6</ele>
        <time>2016-07-31T10:29:23Z</time>
      </trkpt>
      <trkpt lat="42.44246" lon="0.06642">
        <ele>599.4</ele>
        <time>2016-07-31T10:29:24Z</time>
      </trkpt>
      <trkpt lat="42.44242" lon="0.06646">
        <ele>599.1</ele>
        <time>2016-07-31T10:29:25Z</time>
      </trkpt>
      <trkpt lat="42.44238" lon="0.06649">
        <ele>598.9</ele>
        <time>2016-07-31T10:29:26Z</time>
      </trkpt>
      <trkpt lat="42.44235" lon="0.06652">
        <ele>598.7</ele>
        <time>2016-07-31T10:29:27Z</time>
      </trkpt>
      <trkpt lat="42.44231" lon="0.06655">
        <ele>598.5</ele>
        <time>2016-07-31T10:29:28Z</time>
      </trkpt>
      <trkpt lat="42.44228" lon="0.06659">
        <ele>598.3</ele>
        <time>2016-07-31T10:29:29Z</time>
      </trkpt>
      <trkpt lat="42.44224" lon="0.06662">
        <ele>598.2</ele>
        <time>2016-07-31T10:29:30Z</time>
      </trkpt>
      <trkpt lat="42.4422" lon="0.06665">
        <ele>598</ele>
        <time>2016-07-31T10:29:31Z</time>
      </trkpt>
      <trkpt lat="42.44217" lon="0.06668">
        <ele>597.9</ele>
        <time>2016-07-31T10:29:32Z</time>
      </trkpt>
      <trkpt lat="42.44212" lon="0.0667">
        <ele>597.8</ele>
        <time>2016-07-31T10:29:33Z</time>
      </trkpt>
      <trkpt lat="42.44208" lon="0.06671">
        <ele>597.8</ele>
        <time>2016-07-31T10:29:34Z</time>
      </trkpt>
      <trkpt lat="42.44204" lon="0.06673">
        <ele>597.7</ele>
        <time>2016-07-31T10:29:35Z</time>
      </trkpt>
      <trkpt lat="42.442" lon="0.06674">
        <ele>597.7</ele>
        <time>2016-07-31T10:29:36Z</time>
      </trkpt>
      <trkpt lat="42.44195" lon="0.06675">
        <ele>597.6</ele>
        <time>2016-07-31T10:29:37Z</time>
      </trkpt>
      <trkpt lat="42.44191" lon="0.06675">
        <ele>597.6</ele>
        <time>2016-07-31T10:29:38Z</time>
      </trkpt>
      <trkpt lat="42.44187" lon="0.06676">
        <ele>597.6</ele>
        <time>2016-07-31T10:29:39Z</time>
      </trkpt>
      <trkpt lat="42.44183" lon="0.06677">
        <ele>597.5</ele>
        <time>2016-07-31T10:29:40Z</time>
      </trkpt>
      <trkpt lat="42.44179" lon="0.06678">
        <ele>597.5</ele>
        <time>2016-07-31T10:29:41Z</time>
      </trkpt>
      <trkpt lat="42.44175" lon="0.0668">
        <ele>597.4</ele>
        <time>2016-07-31T10:29:42Z</time>
      </trkpt>
      <trkpt lat="42.44171" lon="0.06681">
        <ele>597.3</ele>
        <time>2016-07-31T10:29:43Z</time>
      </trkpt>
      <trkpt lat="42.44167" lon="0.06682">
        <ele>597.3</ele>
        <time>2016-07-31T10:29:44Z</time>
      </trkpt>
      <trkpt lat="42.44163" lon="0.06683">
        <ele>597.2</ele>
        <time>2016-07-31T10:29:45Z</time>
      </trkpt>
      <trkpt lat="42.44159" lon="0.06683">
        <ele>597.2</ele>
        <time>2016-07-31T10:29:46Z</time>
      </trkpt>
      <trkpt lat="42.44155" lon="0.06683">
        <ele>597.2</ele>
        <time>2016-07-31T10:29:47Z</time>
      </trkpt>
      <trkpt lat="42.4415" lon="0.06683">
        <ele>597.1</ele>
        <time>2016-07-31T10:29:48Z</time>
      </trkpt>
      <trkpt lat="42.44146" lon="0.06684">
        <ele>597.1</ele>
        <time>2016-07-31T10:29:49Z</time>
      </trkpt>
      <trkpt lat="42.44141" lon="0.06684">
        <ele>597.1</ele>
        <time>2016-07-31T10:29:50Z</time>
      </trkpt>
      <trkpt lat="42.44137" lon="0.06685">
        <ele>597</ele>
        <time>2016-07-31T10:29:51Z</time>
      </trkpt>
      <trkpt lat="42.44132" lon="0.06686">
        <ele>596.9</ele>
        <time>2016-07-31T10:29:52Z</time>
      </trkpt>
      <trkpt lat="42.44128" lon="0.06687">
        <ele>596.8</ele>
        <time>2016-07-31T10:29:53Z</time>
      </trkpt>
      <trkpt lat="42.44123" lon="0.06687">
        <ele>596.8</ele>
        <time>2016-07-31T10:29:54Z</time>
      </trkpt>
      <trkpt lat="42.44119" lon="0.06687">
        <ele>596.9</ele>
        <time>2016-07-31T10:29:55Z</time>
      </trkpt>
      <trkpt lat="42.44114" lon="0.06686">
        <ele>597.1</ele>
        <time>2016-07-31T10:29:56Z</time>
      </trkpt>
      <trkpt lat="42.4411" lon="0.06685">
        <ele>597.2</ele>
        <time>2016-07-31T10:29:57Z</time>
      </trkpt>
      <trkpt lat="42.44105" lon="0.06684">
        <ele>597.3</ele>
        <time>2016-07-31T10:29:58Z</time>
      </trkpt>
      <trkpt lat="42.44101" lon="0.06684">
        <ele>597.4</ele>
        <time>2016-07-31T10:29:59Z</time>
      </trkpt>
      <trkpt lat="42.44096" lon="0.06683">
        <ele>597.6</ele>
        <time>2016-07-31T10:30:00Z</time>
      </trkpt>
      <trkpt lat="42.44091" lon="0.06683">
        <ele>597.7</ele>
        <time>2016-07-31T10:30:01Z</time>
      </trkpt>
      <trkpt lat="42.44085" lon="0.06683">
        <ele>597.8</ele>
        <time>2016-07-31T10:30:02Z</time>
      </trkpt>
      <trkpt lat="42.44079" lon="0.06682">
        <ele>597.9</ele>
        <time>2016-07-31T10:30:03Z</time>
      </trkpt>
      <trkpt lat="42.44072" lon="0.06683">
        <ele>598</ele>
        <time>2016-07-31T10:30:04Z</time>
      </trkpt>
      <trkpt lat="42.44065" lon="0.06684">
        <ele>598</ele>
        <time>2016-07-31T10:30:05Z</time>
      </trkpt>
      <trkpt lat="42.44057" lon="0.06685">
        <ele>598</ele>
        <time>2016-07-31T10:30:06Z</time>
      </trkpt>
      <trkpt lat="42.4405" lon="0.06686">
        <ele>598</ele>
        <time>2016-07-31T10:30:07Z</time>
      </trkpt>
      <trkpt lat="42.44041" lon="0.06686">
        <ele>598.2</ele>
        <time>2016-07-31T10:30:08Z</time>
      </trkpt>
      <trkpt lat="42.44035" lon="0.06685">
        <ele>598.5</ele>
        <time>2016-07-31T10:30:09Z</time>
      </trkpt>
      <trkpt lat="42.44031" lon="0.06686">
        <ele>598.6</ele>
        <time>2016-07-31T10:30:10Z</time>
      </trkpt>
      <trkpt lat="42.44027" lon="0.06686">
        <ele>598.7</ele>
        <time>2016-07-31T10:30:11Z</time>
      </trkpt>
      <trkpt lat="42.44024" lon="0.06685">
        <ele>598.9</ele>
        <time>2016-07-31T10:30:12Z</time>
      </trkpt>
      <trkpt lat="42.44021" lon="0.06684">
        <ele>599.2</ele>
        <time>2016-07-31T10:30:13Z</time>
      </trkpt>
      <trkpt lat="42.44018" lon="0.06683">
        <ele>599.4</ele>
        <time>2016-07-31T10:30:14Z</time>
      </trkpt>
      <trkpt lat="42.44015" lon="0.06683">
        <ele>599.5</ele>
        <time>2016-07-31T10:30:15Z</time>
      </trkpt>
      <trkpt lat="42.44012" lon="0.06682">
        <ele>599.7</ele>
        <time>2016-07-31T10:30:16Z</time>
      </trkpt>
      <trkpt lat="42.44008" lon="0.06682">
        <ele>599.8</ele>
        <time>2016-07-31T10:30:17Z</time>
      </trkpt>
      <trkpt lat="42.44005" lon="0.06683">
        <ele>599.9</ele>
        <time>2016-07-31T10:30:18Z</time>
      </trkpt>
      <trkpt lat="42.44002" lon="0.06684">
        <ele>599.9</ele>
        <time>2016-07-31T10:30:19Z</time>
      </trkpt>
      <trkpt lat="42.43998" lon="0.06685">
        <ele>599.9</ele>
        <time>2016-07-31T10:30:20Z</time>
      </trkpt>
      <trkpt lat="42.43992" lon="0.06688">
        <ele>599.9</ele>
        <time>2016-07-31T10:30:21Z</time>
      </trkpt>
      <trkpt lat="42.43986" lon="0.06692">
        <ele>599.7</ele>
        <time>2016-07-31T10:30:22Z</time>
      </trkpt>
      <trkpt lat="42.43981" lon="0.06696">
        <ele>599.4</ele>
        <time>2016-07-31T10:30:23Z</time>
      </trkpt>
      <trkpt lat="42.43974" lon="0.06702">
        <ele>599.2</ele>
        <time>2016-07-31T10:30:24Z</time>
      </trkpt>
      <trkpt lat="42.43968" lon="0.06705">
        <ele>599</ele>
        <time>2016-07-31T10:30:25Z</time>
      </trkpt>
      <trkpt lat="42.43961" lon="0.06708">
        <ele>598.9</ele>
        <time>2016-07-31T10:30:26Z</time>
      </trkpt>
      <trkpt lat="42.43955" lon="0.06711">
        <ele>598.5</ele>
        <time>2016-07-31T10:30:27Z</time>
      </trkpt>
      <trkpt lat="42.43948" lon="0.06714">
        <ele>598</ele>
        <time>2016-07-31T10:30:28Z</time>
      </trkpt>
      <trkpt lat="42.43941" lon="0.06716">
        <ele>597.6</ele>
        <time>2016-07-31T10:30:29Z</time>
      </trkpt>
      <trkpt lat="42.43934" lon="0.06718">
        <ele>597.2</ele>
        <time>2016-07-31T10:30:30Z</time>
      </trkpt>
      <trkpt lat="42.43927" lon="0.0672">
        <ele>596.9</ele>
        <time>2016-07-31T10:30:31Z</time>
      </trkpt>
      <trkpt lat="42.4392" lon="0.06721">
        <ele>596.6</ele>
        <time>2016-07-31T10:30:32Z</time>
      </trkpt>
      <trkpt lat="42.43914" lon="0.06723">
        <ele>596.3</ele>
        <time>2016-07-31T10:30:33Z</time>
      </trkpt>
      <trkpt lat="42.43907" lon="0.06724">
        <ele>596.1</ele>
        <time>2016-07-31T10:30:34Z</time>
      </trkpt>
      <trkpt lat="42.43901" lon="0.06725">
        <ele>595.9</ele>
        <time>2016-07-31T10:30:35Z</time>
      </trkpt>
      <trkpt lat="42.43895" lon="0.06726">
        <ele>595.8</ele>
        <time>2016-07-31T10:30:36Z</time>
      </trkpt>
      <trkpt lat="42.43889" lon="0.06727">
        <ele>595.6</ele>
        <time>2016-07-31T10:30:37Z</time>
      </trkpt>
      <trkpt lat="42.43883" lon="0.06727">
        <ele>595.5</ele>
        <time>2016-07-31T10:30:38Z</time>
      </trkpt>
      <trkpt lat="42.43877" lon="0.06728">
        <ele>595.3</ele>
        <time>2016-07-31T10:30:39Z</time>
      </trkpt>
      <trkpt lat="42.43872" lon="0.0673">
        <ele>595.5</ele>
        <time>2016-07-31T10:30:40Z</time>
      </trkpt>
      <trkpt lat="42.43867" lon="0.06732">
        <ele>596.1</ele>
        <time>2016-07-31T10:30:41Z</time>
      </trkpt>
      <trkpt lat="42.43862" lon="0.06734">
        <ele>596.5</ele>
        <time>2016-07-31T10:30:42Z</time>
      </trkpt>
      <trkpt lat="42.43857" lon="0.06734">
        <ele>597.1</ele>
        <time>2016-07-31T10:30:43Z</time>
      </trkpt>
      <trkpt lat="42.43853" lon="0.06736">
        <ele>597.6</ele>
        <time>2016-07-31T10:30:44Z</time>
      </trkpt>
      <trkpt lat="42.43848" lon="0.06737">
        <ele>598.1</ele>
        <time>2016-07-31T10:30:45Z</time>
      </trkpt>
      <trkpt lat="42.43844" lon="0.06738">
        <ele>598.5</ele>
        <time>2016-07-31T10:30:46Z</time>
      </trkpt>
      <trkpt lat="42.4384" lon="0.06738">
        <ele>598.9</ele>
        <time>2016-07-31T10:30:47Z</time>
      </trkpt>
      <trkpt lat="42.43836" lon="0.06738">
        <ele>599.6</ele>
        <time>2016-07-31T10:30:48Z</time>
      </trkpt>
      <trkpt lat="42.43831" lon="0.06735">
        <ele>600.4</ele>
        <time>2016-07-31T10:30:49Z</time>
      </trkpt>
      <trkpt lat="42.43827" lon="0.0673">
        <ele>601.4</ele>
        <time>2016-07-31T10:30:50Z</time>
      </trkpt>
      <trkpt lat="42.43824" lon="0.06724">
        <ele>602.6</ele>
        <time>2016-07-31T10:30:51Z</time>
      </trkpt>
      <trkpt lat="42.43821" lon="0.06718">
        <ele>603.6</ele>
        <time>2016-07-31T10:30:52Z</time>
      </trkpt>
      <trkpt lat="42.43819" lon="0.06713">
        <ele>604.6</ele>
        <time>2016-07-31T10:30:53Z</time>
      </trkpt>
      <trkpt lat="42.43816" lon="0.06709">
        <ele>605.4</ele>
        <time>2016-07-31T10:30:54Z</time>
      </trkpt>
      <trkpt lat="42.43813" lon="0.06706">
        <ele>606.1</ele>
        <time>2016-07-31T10:30:55Z</time>
      </trkpt>
      <trkpt lat="42.4381" lon="0.06706">
        <ele>606.5</ele>
        <time>2016-07-31T10:30:56Z</time>
      </trkpt>
      <trkpt lat="42.43805" lon="0.06708">
        <ele>607.1</ele>
        <time>2016-07-31T10:30:57Z</time>
      </trkpt>
      <trkpt lat="42.43803" lon="0.06713">
        <ele>606.8</ele>
        <time>2016-07-31T10:30:58Z</time>
      </trkpt>
      <trkpt lat="42.43801" lon="0.06719">
        <ele>606.3</ele>
        <time>2016-07-31T10:30:59Z</time>
      </trkpt>
      <trkpt lat="42.438" lon="0.06727">
        <ele>605.5</ele>
        <time>2016-07-31T10:31:00Z</time>
      </trkpt>
      <trkpt lat="42.43798" lon="0.06734">
        <ele>604.9</ele>
        <time>2016-07-31T10:31:01Z</time>
      </trkpt>
      <trkpt lat="42.43796" lon="0.06741">
        <ele>604.1</ele>
        <time>2016-07-31T10:31:02Z</time>
      </trkpt>
      <trkpt lat="42.43794" lon="0.06747">
        <ele>603.5</ele>
        <time>2016-07-31T10:31:03Z</time>
      </trkpt>
      <trkpt lat="42.43792" lon="0.06754">
        <ele>602.9</ele>
        <time>2016-07-31T10:31:04Z</time>
      </trkpt>
      <trkpt lat="42.43789" lon="0.06759">
        <ele>603.1</ele>
        <time>2016-07-31T10:31:05Z</time>
      </trkpt>
      <trkpt lat="42.43787" lon="0.06763">
        <ele>603.4</ele>
        <time>2016-07-31T10:31:06Z</time>
      </trkpt>
      <trkpt lat="42.43784" lon="0.06765">
        <ele>604</ele>
        <time>2016-07-31T10:31:07Z</time>
      </trkpt>
      <trkpt lat="42.4378" lon="0.06767">
        <ele>605</ele>
        <time>2016-07-31T10:31:08Z</time>
      </trkpt>
      <trkpt lat="42.43775" lon="0.06769">
        <ele>606.1</ele>
        <time>2016-07-31T10:31:09Z</time>
      </trkpt>
      <trkpt lat="42.43771" lon="0.06771">
        <ele>607.1</ele>
        <time>2016-07-31T10:31:10Z</time>
      </trkpt>
      <trkpt lat="42.43767" lon="0.06773">
        <ele>608.2</ele>
        <time>2016-07-31T10:31:11Z</time>
      </trkpt>
      <trkpt lat="42.43762" lon="0.06774">
        <ele>609.6</ele>
        <time>2016-07-31T10:31:12Z</time>
      </trkpt>
      <trkpt lat="42.43758" lon="0.06776">
        <ele>610.7</ele>
        <time>2016-07-31T10:31:13Z</time>
      </trkpt>
      <trkpt lat="42.43753" lon="0.06779">
        <ele>611.8</ele>
        <time>2016-07-31T10:31:14Z</time>
      </trkpt>
      <trkpt lat="42.43748" lon="0.06783">
        <ele>612.7</ele>
        <time>2016-07-31T10:31:15Z</time>
      </trkpt>
      <trkpt lat="42.43744" lon="0.06787">
        <ele>613.5</ele>
        <time>2016-07-31T10:31:16Z</time>
      </trkpt>
      <trkpt lat="42.4374" lon="0.06791">
        <ele>614.2</ele>
        <time>2016-07-31T10:31:17Z</time>
      </trkpt>
      <trkpt lat="42.43737" lon="0.06795">
        <ele>614.9</ele>
        <time>2016-07-31T10:31:18Z</time>
      </trkpt>
      <trkpt lat="42.43734" lon="0.068">
        <ele>615.5</ele>
        <time>2016-07-31T10:31:19Z</time>
      </trkpt>
      <trkpt lat="42.4373" lon="0.06805">
        <ele>616.5</ele>
        <time>2016-07-31T10:31:20Z</time>
      </trkpt>
      <trkpt lat="42.43727" lon="0.06809">
        <ele>617.3</ele>
        <time>2016-07-31T10:31:21Z</time>
      </trkpt>
      <trkpt lat="42.43723" lon="0.06815">
        <ele>618</ele>
        <time>2016-07-31T10:31:22Z</time>
      </trkpt>
      <trkpt lat="42.4372" lon="0.0682">
        <ele>618.9</ele>
        <time>2016-07-31T10:31:23Z</time>
      </trkpt>
      <trkpt lat="42.43717" lon="0.06825">
        <ele>619.7</ele>
        <time>2016-07-31T10:31:24Z</time>
      </trkpt>
      <trkpt lat="42.43714" lon="0.0683">
        <ele>620.5</ele>
        <time>2016-07-31T10:31:25Z</time>
      </trkpt>
      <trkpt lat="42.43712" lon="0.06835">
        <ele>621.1</ele>
        <time>2016-07-31T10:31:26Z</time>
      </trkpt>
      <trkpt lat="42.43709" lon="0.0684">
        <ele>622</ele>
        <time>2016-07-31T10:31:27Z</time>
      </trkpt>
      <trkpt lat="42.43707" lon="0.06846">
        <ele>623</ele>
        <time>2016-07-31T10:31:28Z</time>
      </trkpt>
      <trkpt lat="42.43704" lon="0.06852">
        <ele>624.5</ele>
        <time>2016-07-31T10:31:29Z</time>
      </trkpt>
      <trkpt lat="42.43703" lon="0.06857">
        <ele>625.5</ele>
        <time>2016-07-31T10:31:30Z</time>
      </trkpt>
      <trkpt lat="42.43701" lon="0.06861">
        <ele>626.7</ele>
        <time>2016-07-31T10:31:31Z</time>
      </trkpt>
      <trkpt lat="42.43699" lon="0.06866">
        <ele>627.5</ele>
        <time>2016-07-31T10:31:32Z</time>
      </trkpt>
      <trkpt lat="42.43697" lon="0.06871">
        <ele>628.9</ele>
        <time>2016-07-31T10:31:33Z</time>
      </trkpt>
      <trkpt lat="42.43696" lon="0.06875">
        <ele>629.9</ele>
        <time>2016-07-31T10:31:34Z</time>
      </trkpt>
      <trkpt lat="42.43693" lon="0.06879">
        <ele>631.1</ele>
        <time>2016-07-31T10:31:35Z</time>
      </trkpt>
      <trkpt lat="42.43692" lon="0.06884">
        <ele>631.7</ele>
        <time>2016-07-31T10:31:36Z</time>
      </trkpt>
      <trkpt lat="42.4369" lon="0.06888">
        <ele>633</ele>
        <time>2016-07-31T10:31:37Z</time>
      </trkpt>
      <trkpt lat="42.43688" lon="0.06891">
        <ele>634</ele>
        <time>2016-07-31T10:31:38Z</time>
      </trkpt>
      <trkpt lat="42.43686" lon="0.06894">
        <ele>635.3</ele>
        <time>2016-07-31T10:31:39Z</time>
      </trkpt>
      <trkpt lat="42.43685" lon="0.06897">
        <ele>636.2</ele>
        <time>2016-07-31T10:31:40Z</time>
      </trkpt>
      <trkpt lat="42.43682" lon="0.06904">
        <ele>637.3</ele>
        <time>2016-07-31T10:31:42Z</time>
      </trkpt>
      <trkpt lat="42.43681" lon="0.0691">
        <ele>637.9</ele>
        <time>2016-07-31T10:31:44Z</time>
      </trkpt>
      <trkpt lat="42.4368" lon="0.06914">
        <ele>638.1</ele>
        <time>2016-07-31T10:31:45Z</time>
      </trkpt>
      <trkpt lat="42.4368" lon="0.06919">
        <ele>638.5</ele>
        <time>2016-07-31T10:31:46Z</time>
      </trkpt>
      <trkpt lat="42.43679" lon="0.06923">
        <ele>639</ele>
        <time>2016-07-31T10:31:47Z</time>
      </trkpt>
      <trkpt lat="42.43678" lon="0.06927">
        <ele>639.4</ele>
        <time>2016-07-31T10:31:48Z</time>
      </trkpt>
      <trkpt lat="42.43677" lon="0.06932">
        <ele>639.8</ele>
        <time>2016-07-31T10:31:49Z</time>
      </trkpt>
      <trkpt lat="42.43676" lon="0.06936">
        <ele>640.1</ele>
        <time>2016-07-31T10:31:50Z</time>
      </trkpt>
      <trkpt lat="42.43675" lon="0.0694">
        <ele>640.5</ele>
        <time>2016-07-31T10:31:51Z</time>
      </trkpt>
      <trkpt lat="42.43674" lon="0.06944">
        <ele>640.8</ele>
        <time>2016-07-31T10:31:52Z</time>
      </trkpt>
      <trkpt lat="42.43674" lon="0.06951">
        <ele>641.1</ele>
        <time>2016-07-31T10:31:54Z</time>
      </trkpt>
      <trkpt lat="42.43673" lon="0.06959">
        <ele>640.8</ele>
        <time>2016-07-31T10:31:56Z</time>
      </trkpt>
      <trkpt lat="42.43673" lon="0.06964">
        <ele>640.4</ele>
        <time>2016-07-31T10:31:58Z</time>
      </trkpt>
      <trkpt lat="42.43673" lon="0.06969">
        <ele>639.9</ele>
        <time>2016-07-31T10:32:00Z</time>
      </trkpt>
      <trkpt lat="42.43673" lon="0.06973">
        <ele>639.4</ele>
        <time>2016-07-31T10:32:02Z</time>
      </trkpt>
      <trkpt lat="42.43673" lon="0.06979">
        <ele>638.9</ele>
        <time>2016-07-31T10:32:04Z</time>
      </trkpt>
      <trkpt lat="42.43673" lon="0.06983">
        <ele>638.6</ele>
        <time>2016-07-31T10:32:05Z</time>
      </trkpt>
      <trkpt lat="42.43672" lon="0.06987">
        <ele>638.5</ele>
        <time>2016-07-31T10:32:06Z</time>
      </trkpt>
      <trkpt lat="42.43672" lon="0.06992">
        <ele>638.2</ele>
        <time>2016-07-31T10:32:07Z</time>
      </trkpt>
      <trkpt lat="42.43672" lon="0.06998">
        <ele>637.8</ele>
        <time>2016-07-31T10:32:08Z</time>
      </trkpt>
      <trkpt lat="42.43671" lon="0.07004">
        <ele>637.4</ele>
        <time>2016-07-31T10:32:09Z</time>
      </trkpt>
      <trkpt lat="42.4367" lon="0.07012">
        <ele>637.2</ele>
        <time>2016-07-31T10:32:10Z</time>
      </trkpt>
      <trkpt lat="42.43669" lon="0.07018">
        <ele>637.7</ele>
        <time>2016-07-31T10:32:11Z</time>
      </trkpt>
      <trkpt lat="42.43668" lon="0.07023">
        <ele>637.8</ele>
        <time>2016-07-31T10:32:12Z</time>
      </trkpt>
      <trkpt lat="42.43667" lon="0.07027">
        <ele>638</ele>
        <time>2016-07-31T10:32:13Z</time>
      </trkpt>
      <trkpt lat="42.43667" lon="0.07031">
        <ele>637.3</ele>
        <time>2016-07-31T10:32:14Z</time>
      </trkpt>
      <trkpt lat="42.43666" lon="0.07037">
        <ele>637.5</ele>
        <time>2016-07-31T10:32:16Z</time>
      </trkpt>
      <trkpt lat="42.43665" lon="0.07043">
        <ele>637.2</ele>
        <time>2016-07-31T10:32:18Z</time>
      </trkpt>
      <trkpt lat="42.43664" lon="0.07051">
        <ele>637</ele>
        <time>2016-07-31T10:32:20Z</time>
      </trkpt>
      <trkpt lat="42.43663" lon="0.07056">
        <ele>636.9</ele>
        <time>2016-07-31T10:32:21Z</time>
      </trkpt>
      <trkpt lat="42.43662" lon="0.07061">
        <ele>636.3</ele>
        <time>2016-07-31T10:32:22Z</time>
      </trkpt>
      <trkpt lat="42.43662" lon="0.07069">
        <ele>635</ele>
        <time>2016-07-31T10:32:23Z</time>
      </trkpt>
      <trkpt lat="42.43663" lon="0.07076">
        <ele>633.2</ele>
        <time>2016-07-31T10:32:24Z</time>
      </trkpt>
      <trkpt lat="42.43663" lon="0.07082">
        <ele>631.7</ele>
        <time>2016-07-31T10:32:25Z</time>
      </trkpt>
      <trkpt lat="42.43666" lon="0.07089">
        <ele>628.8</ele>
        <time>2016-07-31T10:32:26Z</time>
      </trkpt>
      <trkpt lat="42.43667" lon="0.07098">
        <ele>626.6</ele>
        <time>2016-07-31T10:32:27Z</time>
      </trkpt>
      <trkpt lat="42.43667" lon="0.07104">
        <ele>625.6</ele>
        <time>2016-07-31T10:32:28Z</time>
      </trkpt>
      <trkpt lat="42.43667" lon="0.07113">
        <ele>624.1</ele>
        <time>2016-07-31T10:32:29Z</time>
      </trkpt>
      <trkpt lat="42.4367" lon="0.07124">
        <ele>620.2</ele>
        <time>2016-07-31T10:32:30Z</time>
      </trkpt>
      <trkpt lat="42.43672" lon="0.07133">
        <ele>618.3</ele>
        <time>2016-07-31T10:32:31Z</time>
      </trkpt>
      <trkpt lat="42.43673" lon="0.07143">
        <ele>617.2</ele>
        <time>2016-07-31T10:32:32Z</time>
      </trkpt>
      <trkpt lat="42.43673" lon="0.07155">
        <ele>616</ele>
        <time>2016-07-31T10:32:33Z</time>
      </trkpt>
      <trkpt lat="42.43672" lon="0.07165">
        <ele>615.6</ele>
        <time>2016-07-31T10:32:34Z</time>
      </trkpt>
      <trkpt lat="42.4367" lon="0.07174">
        <ele>615.9</ele>
        <time>2016-07-31T10:32:35Z</time>
      </trkpt>
      <trkpt lat="42.43668" lon="0.07184">
        <ele>615.6</ele>
        <time>2016-07-31T10:32:36Z</time>
      </trkpt>
      <trkpt lat="42.43666" lon="0.07193">
        <ele>615.9</ele>
        <time>2016-07-31T10:32:37Z</time>
      </trkpt>
      <trkpt lat="42.43662" lon="0.072">
        <ele>616.9</ele>
        <time>2016-07-31T10:32:38Z</time>
      </trkpt>
      <trkpt lat="42.43657" lon="0.07207">
        <ele>618.2</ele>
        <time>2016-07-31T10:32:39Z</time>
      </trkpt>
      <trkpt lat="42.43655" lon="0.07214">
        <ele>618.5</ele>
        <time>2016-07-31T10:32:40Z</time>
      </trkpt>
      <trkpt lat="42.43654" lon="0.07222">
        <ele>618</ele>
        <time>2016-07-31T10:32:41Z</time>
      </trkpt>
      <trkpt lat="42.43655" lon="0.0723">
        <ele>617</ele>
        <time>2016-07-31T10:32:42Z</time>
      </trkpt>
      <trkpt lat="42.43657" lon="0.07235">
        <ele>615.6</ele>
        <time>2016-07-31T10:32:43Z</time>
      </trkpt>
      <trkpt lat="42.43656" lon="0.07242">
        <ele>615.5</ele>
        <time>2016-07-31T10:32:44Z</time>
      </trkpt>
      <trkpt lat="42.43653" lon="0.0725">
        <ele>615.9</ele>
        <time>2016-07-31T10:32:45Z</time>
      </trkpt>
      <trkpt lat="42.43653" lon="0.07258">
        <ele>615.3</ele>
        <time>2016-07-31T10:32:46Z</time>
      </trkpt>
      <trkpt lat="42.43653" lon="0.07264">
        <ele>614.8</ele>
        <time>2016-07-31T10:32:47Z</time>
      </trkpt>
      <trkpt lat="42.43652" lon="0.0727">
        <ele>614.8</ele>
        <time>2016-07-31T10:32:48Z</time>
      </trkpt>
      <trkpt lat="42.43649" lon="0.07276">
        <ele>615.3</ele>
        <time>2016-07-31T10:32:49Z</time>
      </trkpt>
      <trkpt lat="42.43648" lon="0.07283">
        <ele>615.5</ele>
        <time>2016-07-31T10:32:50Z</time>
      </trkpt>
      <trkpt lat="42.43645" lon="0.07289">
        <ele>615.9</ele>
        <time>2016-07-31T10:32:51Z</time>
      </trkpt>
      <trkpt lat="42.43642" lon="0.07296">
        <ele>616.7</ele>
        <time>2016-07-31T10:32:52Z</time>
      </trkpt>
      <trkpt lat="42.43642" lon="0.07302">
        <ele>616.3</ele>
        <time>2016-07-31T10:32:53Z</time>
      </trkpt>
      <trkpt lat="42.4364" lon="0.07308">
        <ele>616.2</ele>
        <time>2016-07-31T10:32:54Z</time>
      </trkpt>
      <trkpt lat="42.43638" lon="0.07313">
        <ele>616.5</ele>
        <time>2016-07-31T10:32:55Z</time>
      </trkpt>
      <trkpt lat="42.43637" lon="0.0732">
        <ele>616.3</ele>
        <time>2016-07-31T10:32:56Z</time>
      </trkpt>
      <trkpt lat="42.43635" lon="0.07327">
        <ele>616.2</ele>
        <time>2016-07-31T10:32:57Z</time>
      </trkpt>
      <trkpt lat="42.43633" lon="0.07334">
        <ele>616</ele>
        <time>2016-07-31T10:32:58Z</time>
      </trkpt>
      <trkpt lat="42.43631" lon="0.07341">
        <ele>615.9</ele>
        <time>2016-07-31T10:32:59Z</time>
      </trkpt>
      <trkpt lat="42.4363" lon="0.07349">
        <ele>615.6</ele>
        <time>2016-07-31T10:33:00Z</time>
      </trkpt>
      <trkpt lat="42.43628" lon="0.07356">
        <ele>615.5</ele>
        <time>2016-07-31T10:33:01Z</time>
      </trkpt>
      <trkpt lat="42.43625" lon="0.07362">
        <ele>615.7</ele>
        <time>2016-07-31T10:33:02Z</time>
      </trkpt>
      <trkpt lat="42.43623" lon="0.07369">
        <ele>615.1</ele>
        <time>2016-07-31T10:33:03Z</time>
      </trkpt>
      <trkpt lat="42.43621" lon="0.07376">
        <ele>614.5</ele>
        <time>2016-07-31T10:33:04Z</time>
      </trkpt>
      <trkpt lat="42.43619" lon="0.07383">
        <ele>613.7</ele>
        <time>2016-07-31T10:33:05Z</time>
      </trkpt>
      <trkpt lat="42.43617" lon="0.07391">
        <ele>612.6</ele>
        <time>2016-07-31T10:33:06Z</time>
      </trkpt>
      <trkpt lat="42.43616" lon="0.07398">
        <ele>611.3</ele>
        <time>2016-07-31T10:33:07Z</time>
      </trkpt>
      <trkpt lat="42.43615" lon="0.07405">
        <ele>610.3</ele>
        <time>2016-07-31T10:33:08Z</time>
      </trkpt>
      <trkpt lat="42.43614" lon="0.07413">
        <ele>609.1</ele>
        <time>2016-07-31T10:33:09Z</time>
      </trkpt>
      <trkpt lat="42.43613" lon="0.07421">
        <ele>607.8</ele>
        <time>2016-07-31T10:33:10Z</time>
      </trkpt>
      <trkpt lat="42.43613" lon="0.07431">
        <ele>605.9</ele>
        <time>2016-07-31T10:33:11Z</time>
      </trkpt>
      <trkpt lat="42.43613" lon="0.0744">
        <ele>604.4</ele>
        <time>2016-07-31T10:33:12Z</time>
      </trkpt>
      <trkpt lat="42.43612" lon="0.07449">
        <ele>602.9</ele>
        <time>2016-07-31T10:33:13Z</time>
      </trkpt>
      <trkpt lat="42.43611" lon="0.07457">
        <ele>601.7</ele>
        <time>2016-07-31T10:33:14Z</time>
      </trkpt>
      <trkpt lat="42.43609" lon="0.07465">
        <ele>600.7</ele>
        <time>2016-07-31T10:33:15Z</time>
      </trkpt>
      <trkpt lat="42.43608" lon="0.07473">
        <ele>599.6</ele>
        <time>2016-07-31T10:33:16Z</time>
      </trkpt>
      <trkpt lat="42.43607" lon="0.07481">
        <ele>598.6</ele>
        <time>2016-07-31T10:33:17Z</time>
      </trkpt>
      <trkpt lat="42.43606" lon="0.07488">
        <ele>597.7</ele>
        <time>2016-07-31T10:33:18Z</time>
      </trkpt>
      <trkpt lat="42.43605" lon="0.07496">
        <ele>596.6</ele>
        <time>2016-07-31T10:33:19Z</time>
      </trkpt>
      <trkpt lat="42.43603" lon="0.07503">
        <ele>595.7</ele>
        <time>2016-07-31T10:33:20Z</time>
      </trkpt>
      <trkpt lat="42.43601" lon="0.07511">
        <ele>594.8</ele>
        <time>2016-07-31T10:33:21Z</time>
      </trkpt>
      <trkpt lat="42.43599" lon="0.07518">
        <ele>593.6</ele>
        <time>2016-07-31T10:33:22Z</time>
      </trkpt>
      <trkpt lat="42.43598" lon="0.07526">
        <ele>592.4</ele>
        <time>2016-07-31T10:33:23Z</time>
      </trkpt>
      <trkpt lat="42.43597" lon="0.07533">
        <ele>591.2</ele>
        <time>2016-07-31T10:33:24Z</time>
      </trkpt>
      <trkpt lat="42.43597" lon="0.0754">
        <ele>590</ele>
        <time>2016-07-31T10:33:25Z</time>
      </trkpt>
      <trkpt lat="42.43596" lon="0.07547">
        <ele>589.4</ele>
        <time>2016-07-31T10:33:26Z</time>
      </trkpt>
      <trkpt lat="42.43594" lon="0.07554">
        <ele>589</ele>
        <time>2016-07-31T10:33:27Z</time>
      </trkpt>
      <trkpt lat="42.43593" lon="0.0756">
        <ele>588.6</ele>
        <time>2016-07-31T10:33:28Z</time>
      </trkpt>
      <trkpt lat="42.43591" lon="0.07566">
        <ele>588.2</ele>
        <time>2016-07-31T10:33:29Z</time>
      </trkpt>
      <trkpt lat="42.4359" lon="0.07571">
        <ele>587.9</ele>
        <time>2016-07-31T10:33:30Z</time>
      </trkpt>
      <trkpt lat="42.43589" lon="0.07576">
        <ele>587.5</ele>
        <time>2016-07-31T10:33:31Z</time>
      </trkpt>
      <trkpt lat="42.43587" lon="0.07581">
        <ele>587.2</ele>
        <time>2016-07-31T10:33:32Z</time>
      </trkpt>
      <trkpt lat="42.43585" lon="0.07585">
        <ele>587</ele>
        <time>2016-07-31T10:33:33Z</time>
      </trkpt>
      <trkpt lat="42.43583" lon="0.07588">
        <ele>586.9</ele>
        <time>2016-07-31T10:33:34Z</time>
      </trkpt>
      <trkpt lat="42.4358" lon="0.07589">
        <ele>587</ele>
        <time>2016-07-31T10:33:35Z</time>
      </trkpt>
      <trkpt lat="42.43578" lon="0.07591">
        <ele>586.9</ele>
        <time>2016-07-31T10:33:36Z</time>
      </trkpt>
      <trkpt lat="42.43575" lon="0.07593">
        <ele>586.9</ele>
        <time>2016-07-31T10:33:37Z</time>
      </trkpt>
      <trkpt lat="42.43572" lon="0.07594">
        <ele>586.9</ele>
        <time>2016-07-31T10:33:38Z</time>
      </trkpt>
      <trkpt lat="42.43569" lon="0.07596">
        <ele>586.9</ele>
        <time>2016-07-31T10:33:40Z</time>
      </trkpt>
      <trkpt lat="42.43565" lon="0.07601">
        <ele>586.6</ele>
        <time>2016-07-31T10:33:42Z</time>
      </trkpt>
      <trkpt lat="42.43564" lon="0.07604">
        <ele>586.4</ele>
        <time>2016-07-31T10:33:43Z</time>
      </trkpt>
      <trkpt lat="42.43563" lon="0.07609">
        <ele>585.9</ele>
        <time>2016-07-31T10:33:44Z</time>
      </trkpt>
      <trkpt lat="42.43562" lon="0.07614">
        <ele>585.4</ele>
        <time>2016-07-31T10:33:45Z</time>
      </trkpt>
      <trkpt lat="42.43562" lon="0.07619">
        <ele>584.9</ele>
        <time>2016-07-31T10:33:46Z</time>
      </trkpt>
      <trkpt lat="42.43561" lon="0.07624">
        <ele>584.4</ele>
        <time>2016-07-31T10:33:47Z</time>
      </trkpt>
      <trkpt lat="42.43561" lon="0.0763">
        <ele>584.3</ele>
        <time>2016-07-31T10:33:48Z</time>
      </trkpt>
      <trkpt lat="42.4356" lon="0.07635">
        <ele>584.4</ele>
        <time>2016-07-31T10:33:49Z</time>
      </trkpt>
      <trkpt lat="42.4356" lon="0.0764">
        <ele>584.4</ele>
        <time>2016-07-31T10:33:50Z</time>
      </trkpt>
      <trkpt lat="42.43559" lon="0.07644">
        <ele>584.4</ele>
        <time>2016-07-31T10:33:51Z</time>
      </trkpt>
      <trkpt lat="42.43559" lon="0.07648">
        <ele>584.4</ele>
        <time>2016-07-31T10:33:52Z</time>
      </trkpt>
      <trkpt lat="42.43558" lon="0.07652">
        <ele>584.5</ele>
        <time>2016-07-31T10:33:53Z</time>
      </trkpt>
      <trkpt lat="42.43557" lon="0.07655">
        <ele>584.5</ele>
        <time>2016-07-31T10:33:54Z</time>
      </trkpt>
      <trkpt lat="42.43555" lon="0.07658">
        <ele>584.6</ele>
        <time>2016-07-31T10:33:55Z</time>
      </trkpt>
      <trkpt lat="42.43553" lon="0.07661">
        <ele>584.6</ele>
        <time>2016-07-31T10:33:56Z</time>
      </trkpt>
      <trkpt lat="42.43551" lon="0.07664">
        <ele>584.7</ele>
        <time>2016-07-31T10:33:57Z</time>
      </trkpt>
      <trkpt lat="42.43549" lon="0.07666">
        <ele>584.8</ele>
        <time>2016-07-31T10:33:58Z</time>
      </trkpt>
      <trkpt lat="42.43547" lon="0.07668">
        <ele>584.9</ele>
        <time>2016-07-31T10:33:59Z</time>
      </trkpt>
      <trkpt lat="42.43544" lon="0.07671">
        <ele>584.9</ele>
        <time>2016-07-31T10:34:00Z</time>
      </trkpt>
      <trkpt lat="42.43541" lon="0.07673">
        <ele>585</ele>
        <time>2016-07-31T10:34:01Z</time>
      </trkpt>
      <trkpt lat="42.43538" lon="0.07676">
        <ele>585</ele>
        <time>2016-07-31T10:34:02Z</time>
      </trkpt>
      <trkpt lat="42.43535" lon="0.07678">
        <ele>585</ele>
        <time>2016-07-31T10:34:03Z</time>
      </trkpt>
      <trkpt lat="42.43532" lon="0.07681">
        <ele>585</ele>
        <time>2016-07-31T10:34:04Z</time>
      </trkpt>
      <trkpt lat="42.4353" lon="0.07683">
        <ele>585</ele>
        <time>2016-07-31T10:34:05Z</time>
      </trkpt>
      <trkpt lat="42.43527" lon="0.07686">
        <ele>585</ele>
        <time>2016-07-31T10:34:06Z</time>
      </trkpt>
      <trkpt lat="42.43525" lon="0.07688">
        <ele>585</ele>
        <time>2016-07-31T10:34:07Z</time>
      </trkpt>
      <trkpt lat="42.43523" lon="0.07691">
        <ele>585</ele>
        <time>2016-07-31T10:34:08Z</time>
      </trkpt>
      <trkpt lat="42.43521" lon="0.07694">
        <ele>584.9</ele>
        <time>2016-07-31T10:34:09Z</time>
      </trkpt>
      <trkpt lat="42.43519" lon="0.07697">
        <ele>584.9</ele>
        <time>2016-07-31T10:34:10Z</time>
      </trkpt>
      <trkpt lat="42.43517" lon="0.077">
        <ele>584.8</ele>
        <time>2016-07-31T10:34:11Z</time>
      </trkpt>
      <trkpt lat="42.43515" lon="0.07703">
        <ele>584.8</ele>
        <time>2016-07-31T10:34:12Z</time>
      </trkpt>
      <trkpt lat="42.43513" lon="0.07706">
        <ele>584.7</ele>
        <time>2016-07-31T10:34:13Z</time>
      </trkpt>
      <trkpt lat="42.43511" lon="0.0771">
        <ele>584.6</ele>
        <time>2016-07-31T10:34:14Z</time>
      </trkpt>
      <trkpt lat="42.43509" lon="0.07713">
        <ele>584.6</ele>
        <time>2016-07-31T10:34:15Z</time>
      </trkpt>
      <trkpt lat="42.43508" lon="0.07717">
        <ele>584.5</ele>
        <time>2016-07-31T10:34:16Z</time>
      </trkpt>
      <trkpt lat="42.43505" lon="0.07722">
        <ele>584.4</ele>
        <time>2016-07-31T10:34:18Z</time>
      </trkpt>
      <trkpt lat="42.43504" lon="0.07726">
        <ele>584.3</ele>
        <time>2016-07-31T10:34:20Z</time>
      </trkpt>
      <trkpt lat="42.43503" lon="0.07731">
        <ele>584.3</ele>
        <time>2016-07-31T10:34:22Z</time>
      </trkpt>
      <trkpt lat="42.43501" lon="0.07735">
        <ele>584.2</ele>
        <time>2016-07-31T10:34:24Z</time>
      </trkpt>
      <trkpt lat="42.435" lon="0.0774">
        <ele>584.1</ele>
        <time>2016-07-31T10:34:26Z</time>
      </trkpt>
      <trkpt lat="42.43501" lon="0.07745">
        <ele>584.1</ele>
        <time>2016-07-31T10:34:28Z</time>
      </trkpt>
      <trkpt lat="42.435" lon="0.0775">
        <ele>584</ele>
        <time>2016-07-31T10:34:30Z</time>
      </trkpt>
      <trkpt lat="42.435" lon="0.07757">
        <ele>583.9</ele>
        <time>2016-07-31T10:34:32Z</time>
      </trkpt>
      <trkpt lat="42.435" lon="0.07761">
        <ele>583.9</ele>
        <time>2016-07-31T10:34:33Z</time>
      </trkpt>
      <trkpt lat="42.43499" lon="0.07765">
        <ele>583.8</ele>
        <time>2016-07-31T10:34:34Z</time>
      </trkpt>
      <trkpt lat="42.43499" lon="0.0777">
        <ele>583.7</ele>
        <time>2016-07-31T10:34:35Z</time>
      </trkpt>
      <trkpt lat="42.43499" lon="0.07774">
        <ele>583.7</ele>
        <time>2016-07-31T10:34:36Z</time>
      </trkpt>
      <trkpt lat="42.43499" lon="0.0778">
        <ele>583.6</ele>
        <time>2016-07-31T10:34:38Z</time>
      </trkpt>
      <trkpt lat="42.43502" lon="0.0778">
        <ele>583.7</ele>
        <time>2016-07-31T10:34:40Z</time>
      </trkpt>
      <trkpt lat="42.43505" lon="0.07774">
        <ele>583.9</ele>
        <time>2016-07-31T10:34:42Z</time>
      </trkpt>
      <trkpt lat="42.43505" lon="0.0777">
        <ele>583.9</ele>
        <time>2016-07-31T10:34:43Z</time>
      </trkpt>
      <trkpt lat="42.43505" lon="0.07766">
        <ele>584</ele>
        <time>2016-07-31T10:34:44Z</time>
      </trkpt>
      <trkpt lat="42.43505" lon="0.07762">
        <ele>584</ele>
        <time>2016-07-31T10:34:45Z</time>
      </trkpt>
      <trkpt lat="42.43505" lon="0.07759">
        <ele>584</ele>
        <time>2016-07-31T10:34:46Z</time>
      </trkpt>
      <trkpt lat="42.43505" lon="0.07752">
        <ele>584.1</ele>
        <time>2016-07-31T10:34:48Z</time>
      </trkpt>
      <trkpt lat="42.43506" lon="0.07747">
        <ele>584.2</ele>
        <time>2016-07-31T10:34:50Z</time>
      </trkpt>
      <trkpt lat="42.43506" lon="0.07743">
        <ele>584.2</ele>
        <time>2016-07-31T10:34:52Z</time>
      </trkpt>
      <trkpt lat="42.43506" lon="0.07738">
        <ele>584.3</ele>
        <time>2016-07-31T10:34:54Z</time>
      </trkpt>
      <trkpt lat="42.43507" lon="0.07734">
        <ele>584.3</ele>
        <time>2016-07-31T10:34:57Z</time>
      </trkpt>
      <trkpt lat="42.43509" lon="0.0773">
        <ele>584.4</ele>
        <time>2016-07-31T10:35:00Z</time>
      </trkpt>
      <trkpt lat="42.4351" lon="0.07726">
        <ele>584.5</ele>
        <time>2016-07-31T10:35:03Z</time>
      </trkpt>
      <trkpt lat="42.43512" lon="0.07724">
        <ele>584.5</ele>
        <time>2016-07-31T10:35:06Z</time>
      </trkpt>
      <trkpt lat="42.43515" lon="0.07721">
        <ele>584.6</ele>
        <time>2016-07-31T10:35:09Z</time>
      </trkpt>
      <trkpt lat="42.43515" lon="0.07717">
        <ele>584.6</ele>
        <time>2016-07-31T10:35:17Z</time>
      </trkpt>
      <trkpt lat="42.43514" lon="0.07713">
        <ele>584.6</ele>
        <time>2016-07-31T10:37:42Z</time>
      </trkpt>
      <trkpt lat="42.43516" lon="0.07711">
        <ele>584.7</ele>
        <time>2016-07-31T10:37:44Z</time>
      </trkpt>
      <trkpt lat="42.43519" lon="0.07707">
        <ele>584.7</ele>
        <time>2016-07-31T10:37:46Z</time>
      </trkpt>
      <trkpt lat="42.43522" lon="0.07704">
        <ele>584.8</ele>
        <time>2016-07-31T10:37:48Z</time>
      </trkpt>
      <trkpt lat="42.43527" lon="0.07703">
        <ele>584.9</ele>
        <time>2016-07-31T10:37:50Z</time>
      </trkpt>
      <trkpt lat="42.43531" lon="0.07703">
        <ele>584.9</ele>
        <time>2016-07-31T10:37:52Z</time>
      </trkpt>
      <trkpt lat="42.43533" lon="0.07707">
        <ele>584.9</ele>
        <time>2016-07-31T10:38:00Z</time>
      </trkpt>
      <trkpt lat="42.43534" lon="0.0771">
        <ele>584.9</ele>
        <time>2016-07-31T10:38:06Z</time>
      </trkpt>
      <trkpt lat="42.43538" lon="0.0771">
        <ele>585</ele>
        <time>2016-07-31T10:38:13Z</time>
      </trkpt>
      <trkpt lat="42.4354" lon="0.0771">
        <ele>585</ele>
        <time>2016-07-31T10:38:22Z</time>
      </trkpt>
      <trkpt lat="42.43538" lon="0.07707">
        <ele>585</ele>
        <time>2016-07-31T10:38:27Z</time>
      </trkpt>
      <trkpt lat="42.43535" lon="0.07707">
        <ele>584.9</ele>
        <time>2016-07-31T10:38:30Z</time>
      </trkpt>
      <trkpt lat="42.43532" lon="0.07707">
        <ele>584.9</ele>
        <time>2016-07-31T10:38:33Z</time>
      </trkpt>
      <trkpt lat="42.43529" lon="0.07705">
        <ele>584.9</ele>
        <time>2016-07-31T10:38:35Z</time>
      </trkpt>
      <trkpt lat="42.43525" lon="0.07701">
        <ele>584.9</ele>
        <time>2016-07-31T10:38:37Z</time>
      </trkpt>
      <trkpt lat="42.43524" lon="0.07694">
        <ele>584.9</ele>
        <time>2016-07-31T10:38:39Z</time>
      </trkpt>
      <trkpt lat="42.43527" lon="0.0769">
        <ele>585</ele>
        <time>2016-07-31T10:38:40Z</time>
      </trkpt>
      <trkpt lat="42.4353" lon="0.07687">
        <ele>585</ele>
        <time>2016-07-31T10:38:41Z</time>
      </trkpt>
      <trkpt lat="42.43533" lon="0.07684">
        <ele>585</ele>
        <time>2016-07-31T10:38:42Z</time>
      </trkpt>
      <trkpt lat="42.43537" lon="0.07682">
        <ele>585</ele>
        <time>2016-07-31T10:38:43Z</time>
      </trkpt>
      <trkpt lat="42.4354" lon="0.07679">
        <ele>585</ele>
        <time>2016-07-31T10:38:44Z</time>
      </trkpt>
      <trkpt lat="42.43544" lon="0.07676">
        <ele>584.9</ele>
        <time>2016-07-31T10:38:45Z</time>
      </trkpt>
      <trkpt lat="42.43547" lon="0.07674">
        <ele>584.9</ele>
        <time>2016-07-31T10:38:46Z</time>
      </trkpt>
      <trkpt lat="42.4355" lon="0.07671">
        <ele>584.8</ele>
        <time>2016-07-31T10:38:47Z</time>
      </trkpt>
      <trkpt lat="42.43553" lon="0.07667">
        <ele>584.7</ele>
        <time>2016-07-31T10:38:48Z</time>
      </trkpt>
      <trkpt lat="42.43555" lon="0.07664">
        <ele>584.6</ele>
        <time>2016-07-31T10:38:49Z</time>
      </trkpt>
      <trkpt lat="42.43558" lon="0.0766">
        <ele>584.5</ele>
        <time>2016-07-31T10:38:50Z</time>
      </trkpt>
      <trkpt lat="42.4356" lon="0.07656">
        <ele>584.4</ele>
        <time>2016-07-31T10:38:51Z</time>
      </trkpt>
      <trkpt lat="42.43562" lon="0.07652">
        <ele>584.4</ele>
        <time>2016-07-31T10:38:52Z</time>
      </trkpt>
      <trkpt lat="42.43564" lon="0.07648">
        <ele>584.3</ele>
        <time>2016-07-31T10:38:53Z</time>
      </trkpt>
      <trkpt lat="42.43566" lon="0.07645">
        <ele>584.2</ele>
        <time>2016-07-31T10:38:54Z</time>
      </trkpt>
      <trkpt lat="42.43568" lon="0.07643">
        <ele>584.1</ele>
        <time>2016-07-31T10:38:55Z</time>
      </trkpt>
      <trkpt lat="42.43573" lon="0.0764">
        <ele>584</ele>
        <time>2016-07-31T10:38:57Z</time>
      </trkpt>
      <trkpt lat="42.43576" lon="0.07641">
        <ele>583.8</ele>
        <time>2016-07-31T10:38:59Z</time>
      </trkpt>
      <trkpt lat="42.43579" lon="0.07643">
        <ele>583.8</ele>
        <time>2016-07-31T10:39:02Z</time>
      </trkpt>
      <trkpt lat="42.43575" lon="0.07642">
        <ele>583.9</ele>
        <time>2016-07-31T10:39:28Z</time>
      </trkpt>
      <trkpt lat="42.43573" lon="0.07638">
        <ele>583.9</ele>
        <time>2016-07-31T10:39:30Z</time>
      </trkpt>
      <trkpt lat="42.43571" lon="0.07635">
        <ele>584</ele>
        <time>2016-07-31T10:39:32Z</time>
      </trkpt>
      <trkpt lat="42.43568" lon="0.07634">
        <ele>584.1</ele>
        <time>2016-07-31T10:39:34Z</time>
      </trkpt>
      <trkpt lat="42.43564" lon="0.07636">
        <ele>584.2</ele>
        <time>2016-07-31T10:39:36Z</time>
      </trkpt>
      <trkpt lat="42.4356" lon="0.0764">
        <ele>584.4</ele>
        <time>2016-07-31T10:39:38Z</time>
      </trkpt>
      <trkpt lat="42.43559" lon="0.07643">
        <ele>584.4</ele>
        <time>2016-07-31T10:39:39Z</time>
      </trkpt>
      <trkpt lat="42.43557" lon="0.07647">
        <ele>584.5</ele>
        <time>2016-07-31T10:39:40Z</time>
      </trkpt>
      <trkpt lat="42.43556" lon="0.07651">
        <ele>584.5</ele>
        <time>2016-07-31T10:39:41Z</time>
      </trkpt>
      <trkpt lat="42.43554" lon="0.07654">
        <ele>584.6</ele>
        <time>2016-07-31T10:39:42Z</time>
      </trkpt>
      <trkpt lat="42.43552" lon="0.07659">
        <ele>584.7</ele>
        <time>2016-07-31T10:39:44Z</time>
      </trkpt>
      <trkpt lat="42.43552" lon="0.07663">
        <ele>584.7</ele>
        <time>2016-07-31T10:39:46Z</time>
      </trkpt>
      <trkpt lat="42.43557" lon="0.07662">
        <ele>584.5</ele>
        <time>2016-07-31T10:39:48Z</time>
      </trkpt>
      <trkpt lat="42.43559" lon="0.0766">
        <ele>584.5</ele>
        <time>2016-07-31T10:39:49Z</time>
      </trkpt>
      <trkpt lat="42.43561" lon="0.07656">
        <ele>584.4</ele>
        <time>2016-07-31T10:39:50Z</time>
      </trkpt>
      <trkpt lat="42.43562" lon="0.07652">
        <ele>584.3</ele>
        <time>2016-07-31T10:39:51Z</time>
      </trkpt>
      <trkpt lat="42.43564" lon="0.07648">
        <ele>584.3</ele>
        <time>2016-07-31T10:39:52Z</time>
      </trkpt>
      <trkpt lat="42.43565" lon="0.07645">
        <ele>584.2</ele>
        <time>2016-07-31T10:39:53Z</time>
      </trkpt>
      <trkpt lat="42.43568" lon="0.0764">
        <ele>584.1</ele>
        <time>2016-07-31T10:39:55Z</time>
      </trkpt>
      <trkpt lat="42.43571" lon="0.0764">
        <ele>584</ele>
        <time>2016-07-31T10:39:57Z</time>
      </trkpt>
      <trkpt lat="42.43575" lon="0.07641">
        <ele>583.9</ele>
        <time>2016-07-31T10:39:59Z</time>
      </trkpt>
      <trkpt lat="42.43578" lon="0.07642">
        <ele>583.8</ele>
        <time>2016-07-31T10:40:02Z</time>
      </trkpt>
      <trkpt lat="42.43575" lon="0.07637">
        <ele>583.9</ele>
        <time>2016-07-31T10:45:35Z</time>
      </trkpt>
      <trkpt lat="42.4357" lon="0.07634">
        <ele>584</ele>
        <time>2016-07-31T10:45:37Z</time>
      </trkpt>
      <trkpt lat="42.43565" lon="0.07635">
        <ele>584.2</ele>
        <time>2016-07-31T10:45:39Z</time>
      </trkpt>
      <trkpt lat="42.43562" lon="0.07638">
        <ele>584.3</ele>
        <time>2016-07-31T10:45:40Z</time>
      </trkpt>
      <trkpt lat="42.4356" lon="0.07641">
        <ele>584.4</ele>
        <time>2016-07-31T10:45:41Z</time>
      </trkpt>
      <trkpt lat="42.43558" lon="0.07645">
        <ele>584.5</ele>
        <time>2016-07-31T10:45:42Z</time>
      </trkpt>
      <trkpt lat="42.43556" lon="0.07649">
        <ele>584.5</ele>
        <time>2016-07-31T10:45:43Z</time>
      </trkpt>
      <trkpt lat="42.43554" lon="0.07653">
        <ele>584.6</ele>
        <time>2016-07-31T10:45:44Z</time>
      </trkpt>
      <trkpt lat="42.43552" lon="0.07657">
        <ele>584.7</ele>
        <time>2016-07-31T10:45:45Z</time>
      </trkpt>
      <trkpt lat="42.4355" lon="0.0766">
        <ele>584.8</ele>
        <time>2016-07-31T10:45:46Z</time>
      </trkpt>
      <trkpt lat="42.43547" lon="0.07663">
        <ele>584.8</ele>
        <time>2016-07-31T10:45:47Z</time>
      </trkpt>
      <trkpt lat="42.43544" lon="0.07666">
        <ele>584.9</ele>
        <time>2016-07-31T10:45:48Z</time>
      </trkpt>
      <trkpt lat="42.43541" lon="0.07669">
        <ele>585</ele>
        <time>2016-07-31T10:45:49Z</time>
      </trkpt>
      <trkpt lat="42.43539" lon="0.07673">
        <ele>585</ele>
        <time>2016-07-31T10:45:50Z</time>
      </trkpt>
      <trkpt lat="42.43536" lon="0.07676">
        <ele>585</ele>
        <time>2016-07-31T10:45:51Z</time>
      </trkpt>
      <trkpt lat="42.43532" lon="0.0768">
        <ele>585</ele>
        <time>2016-07-31T10:45:52Z</time>
      </trkpt>
      <trkpt lat="42.43529" lon="0.07684">
        <ele>585</ele>
        <time>2016-07-31T10:45:53Z</time>
      </trkpt>
      <trkpt lat="42.43526" lon="0.07687">
        <ele>585</ele>
        <time>2016-07-31T10:45:54Z</time>
      </trkpt>
      <trkpt lat="42.43523" lon="0.07691">
        <ele>585</ele>
        <time>2016-07-31T10:45:55Z</time>
      </trkpt>
      <trkpt lat="42.4352" lon="0.07695">
        <ele>584.9</ele>
        <time>2016-07-31T10:45:56Z</time>
      </trkpt>
      <trkpt lat="42.43517" lon="0.07699">
        <ele>584.8</ele>
        <time>2016-07-31T10:45:57Z</time>
      </trkpt>
      <trkpt lat="42.43514" lon="0.07704">
        <ele>584.7</ele>
        <time>2016-07-31T10:45:58Z</time>
      </trkpt>
      <trkpt lat="42.43512" lon="0.0771">
        <ele>584.6</ele>
        <time>2016-07-31T10:45:59Z</time>
      </trkpt>
      <trkpt lat="42.4351" lon="0.07715">
        <ele>584.6</ele>
        <time>2016-07-31T10:46:00Z</time>
      </trkpt>
      <trkpt lat="42.43507" lon="0.0772">
        <ele>584.5</ele>
        <time>2016-07-31T10:46:01Z</time>
      </trkpt>
      <trkpt lat="42.43504" lon="0.07725">
        <ele>584.4</ele>
        <time>2016-07-31T10:46:02Z</time>
      </trkpt>
      <trkpt lat="42.43501" lon="0.0773">
        <ele>584.3</ele>
        <time>2016-07-31T10:46:03Z</time>
      </trkpt>
      <trkpt lat="42.43498" lon="0.07734">
        <ele>584.2</ele>
        <time>2016-07-31T10:46:04Z</time>
      </trkpt>
      <trkpt lat="42.43495" lon="0.07737">
        <ele>584</ele>
        <time>2016-07-31T10:46:05Z</time>
      </trkpt>
      <trkpt lat="42.43491" lon="0.07741">
        <ele>583.9</ele>
        <time>2016-07-31T10:46:06Z</time>
      </trkpt>
      <trkpt lat="42.43489" lon="0.07745">
        <ele>583.8</ele>
        <time>2016-07-31T10:46:07Z</time>
      </trkpt>
      <trkpt lat="42.43486" lon="0.07749">
        <ele>583.7</ele>
        <time>2016-07-31T10:46:08Z</time>
      </trkpt>
      <trkpt lat="42.43483" lon="0.07754">
        <ele>583.5</ele>
        <time>2016-07-31T10:46:09Z</time>
      </trkpt>
      <trkpt lat="42.4348" lon="0.07758">
        <ele>583.4</ele>
        <time>2016-07-31T10:46:10Z</time>
      </trkpt>
      <trkpt lat="42.43476" lon="0.07762">
        <ele>583.2</ele>
        <time>2016-07-31T10:46:11Z</time>
      </trkpt>
      <trkpt lat="42.43472" lon="0.07766">
        <ele>583</ele>
        <time>2016-07-31T10:46:12Z</time>
      </trkpt>
      <trkpt lat="42.43468" lon="0.07769">
        <ele>582.8</ele>
        <time>2016-07-31T10:46:13Z</time>
      </trkpt>
      <trkpt lat="42.43464" lon="0.07772">
        <ele>582.6</ele>
        <time>2016-07-31T10:46:14Z</time>
      </trkpt>
      <trkpt lat="42.43459" lon="0.07775">
        <ele>582.4</ele>
        <time>2016-07-31T10:46:15Z</time>
      </trkpt>
      <trkpt lat="42.43455" lon="0.07778">
        <ele>582.4</ele>
        <time>2016-07-31T10:46:16Z</time>
      </trkpt>
      <trkpt lat="42.43451" lon="0.07781">
        <ele>582.4</ele>
        <time>2016-07-31T10:46:17Z</time>
      </trkpt>
      <trkpt lat="42.43447" lon="0.07784">
        <ele>582.3</ele>
        <time>2016-07-31T10:46:18Z</time>
      </trkpt>
      <trkpt lat="42.43443" lon="0.07787">
        <ele>582.3</ele>
        <time>2016-07-31T10:46:19Z</time>
      </trkpt>
      <trkpt lat="42.43439" lon="0.0779">
        <ele>582.3</ele>
        <time>2016-07-31T10:46:20Z</time>
      </trkpt>
      <trkpt lat="42.43435" lon="0.07793">
        <ele>582.2</ele>
        <time>2016-07-31T10:46:21Z</time>
      </trkpt>
      <trkpt lat="42.43431" lon="0.07796">
        <ele>582.2</ele>
        <time>2016-07-31T10:46:22Z</time>
      </trkpt>
      <trkpt lat="42.43427" lon="0.07799">
        <ele>582.1</ele>
        <time>2016-07-31T10:46:23Z</time>
      </trkpt>
      <trkpt lat="42.43423" lon="0.07802">
        <ele>582</ele>
        <time>2016-07-31T10:46:24Z</time>
      </trkpt>
      <trkpt lat="42.4342" lon="0.07806">
        <ele>582</ele>
        <time>2016-07-31T10:46:25Z</time>
      </trkpt>
      <trkpt lat="42.43416" lon="0.07809">
        <ele>581.9</ele>
        <time>2016-07-31T10:46:26Z</time>
      </trkpt>
      <trkpt lat="42.43413" lon="0.07813">
        <ele>581.8</ele>
        <time>2016-07-31T10:46:27Z</time>
      </trkpt>
      <trkpt lat="42.4341" lon="0.07816">
        <ele>581.7</ele>
        <time>2016-07-31T10:46:28Z</time>
      </trkpt>
      <trkpt lat="42.43408" lon="0.0782">
        <ele>581.6</ele>
        <time>2016-07-31T10:46:29Z</time>
      </trkpt>
      <trkpt lat="42.43405" lon="0.07824">
        <ele>581.5</ele>
        <time>2016-07-31T10:46:30Z</time>
      </trkpt>
      <trkpt lat="42.43402" lon="0.07828">
        <ele>581.4</ele>
        <time>2016-07-31T10:46:31Z</time>
      </trkpt>
      <trkpt lat="42.43398" lon="0.07832">
        <ele>581.3</ele>
        <time>2016-07-31T10:46:32Z</time>
      </trkpt>
      <trkpt lat="42.43395" lon="0.07836">
        <ele>581.2</ele>
        <time>2016-07-31T10:46:33Z</time>
      </trkpt>
      <trkpt lat="42.43391" lon="0.0784">
        <ele>581.1</ele>
        <time>2016-07-31T10:46:34Z</time>
      </trkpt>
      <trkpt lat="42.43387" lon="0.07844">
        <ele>581</ele>
        <time>2016-07-31T10:46:35Z</time>
      </trkpt>
      <trkpt lat="42.43384" lon="0.07849">
        <ele>580.8</ele>
        <time>2016-07-31T10:46:36Z</time>
      </trkpt>
      <trkpt lat="42.4338" lon="0.07853">
        <ele>580.7</ele>
        <time>2016-07-31T10:46:37Z</time>
      </trkpt>
      <trkpt lat="42.43377" lon="0.07858">
        <ele>580.6</ele>
        <time>2016-07-31T10:46:38Z</time>
      </trkpt>
      <trkpt lat="42.43373" lon="0.07862">
        <ele>580.5</ele>
        <time>2016-07-31T10:46:39Z</time>
      </trkpt>
      <trkpt lat="42.43369" lon="0.07867">
        <ele>580.4</ele>
        <time>2016-07-31T10:46:40Z</time>
      </trkpt>
      <trkpt lat="42.43365" lon="0.07872">
        <ele>580.2</ele>
        <time>2016-07-31T10:46:41Z</time>
      </trkpt>
      <trkpt lat="42.43361" lon="0.07876">
        <ele>580.2</ele>
        <time>2016-07-31T10:46:42Z</time>
      </trkpt>
      <trkpt lat="42.43357" lon="0.07881">
        <ele>580.2</ele>
        <time>2016-07-31T10:46:43Z</time>
      </trkpt>
      <trkpt lat="42.43352" lon="0.07886">
        <ele>580.2</ele>
        <time>2016-07-31T10:46:44Z</time>
      </trkpt>
      <trkpt lat="42.43348" lon="0.07891">
        <ele>580.2</ele>
        <time>2016-07-31T10:46:45Z</time>
      </trkpt>
      <trkpt lat="42.43343" lon="0.07895">
        <ele>580.2</ele>
        <time>2016-07-31T10:46:46Z</time>
      </trkpt>
      <trkpt lat="42.43339" lon="0.079">
        <ele>580.2</ele>
        <time>2016-07-31T10:46:47Z</time>
      </trkpt>
      <trkpt lat="42.43334" lon="0.07904">
        <ele>580.1</ele>
        <time>2016-07-31T10:46:48Z</time>
      </trkpt>
      <trkpt lat="42.4333" lon="0.07908">
        <ele>580.1</ele>
        <time>2016-07-31T10:46:49Z</time>
      </trkpt>
      <trkpt lat="42.43326" lon="0.07912">
        <ele>580.1</ele>
        <time>2016-07-31T10:46:50Z</time>
      </trkpt>
      <trkpt lat="42.43321" lon="0.07917">
        <ele>580</ele>
        <time>2016-07-31T10:46:51Z</time>
      </trkpt>
      <trkpt lat="42.43317" lon="0.07921">
        <ele>579.9</ele>
        <time>2016-07-31T10:46:52Z</time>
      </trkpt>
      <trkpt lat="42.43313" lon="0.07926">
        <ele>579.8</ele>
        <time>2016-07-31T10:46:53Z</time>
      </trkpt>
      <trkpt lat="42.43309" lon="0.0793">
        <ele>579.7</ele>
        <time>2016-07-31T10:46:54Z</time>
      </trkpt>
      <trkpt lat="42.43305" lon="0.07935">
        <ele>579.6</ele>
        <time>2016-07-31T10:46:55Z</time>
      </trkpt>
      <trkpt lat="42.43301" lon="0.07939">
        <ele>579.5</ele>
        <time>2016-07-31T10:46:56Z</time>
      </trkpt>
      <trkpt lat="42.43297" lon="0.07943">
        <ele>579.4</ele>
        <time>2016-07-31T10:46:57Z</time>
      </trkpt>
      <trkpt lat="42.43293" lon="0.07948">
        <ele>579.3</ele>
        <time>2016-07-31T10:46:58Z</time>
      </trkpt>
      <trkpt lat="42.43289" lon="0.07952">
        <ele>579.1</ele>
        <time>2016-07-31T10:46:59Z</time>
      </trkpt>
      <trkpt lat="42.43285" lon="0.07957">
        <ele>579</ele>
        <time>2016-07-31T10:47:00Z</time>
      </trkpt>
      <trkpt lat="42.43281" lon="0.07962">
        <ele>578.8</ele>
        <time>2016-07-31T10:47:01Z</time>
      </trkpt>
      <trkpt lat="42.43278" lon="0.07967">
        <ele>578.6</ele>
        <time>2016-07-31T10:47:02Z</time>
      </trkpt>
      <trkpt lat="42.43274" lon="0.07972">
        <ele>578.5</ele>
        <time>2016-07-31T10:47:03Z</time>
      </trkpt>
      <trkpt lat="42.43271" lon="0.07977">
        <ele>578.3</ele>
        <time>2016-07-31T10:47:04Z</time>
      </trkpt>
      <trkpt lat="42.43267" lon="0.07982">
        <ele>578.1</ele>
        <time>2016-07-31T10:47:05Z</time>
      </trkpt>
      <trkpt lat="42.43264" lon="0.07987">
        <ele>578</ele>
        <time>2016-07-31T10:47:06Z</time>
      </trkpt>
      <trkpt lat="42.4326" lon="0.07992">
        <ele>577.8</ele>
        <time>2016-07-31T10:47:07Z</time>
      </trkpt>
      <trkpt lat="42.43256" lon="0.07996">
        <ele>577.7</ele>
        <time>2016-07-31T10:47:08Z</time>
      </trkpt>
      <trkpt lat="42.43252" lon="0.07999">
        <ele>577.5</ele>
        <time>2016-07-31T10:47:09Z</time>
      </trkpt>
      <trkpt lat="42.43248" lon="0.08003">
        <ele>577.4</ele>
        <time>2016-07-31T10:47:10Z</time>
      </trkpt>
      <trkpt lat="42.43243" lon="0.08006">
        <ele>577.3</ele>
        <time>2016-07-31T10:47:11Z</time>
      </trkpt>
      <trkpt lat="42.43239" lon="0.08009">
        <ele>577.2</ele>
        <time>2016-07-31T10:47:12Z</time>
      </trkpt>
      <trkpt lat="42.43235" lon="0.08012">
        <ele>577</ele>
        <time>2016-07-31T10:47:13Z</time>
      </trkpt>
      <trkpt lat="42.43231" lon="0.08015">
        <ele>576.9</ele>
        <time>2016-07-31T10:47:14Z</time>
      </trkpt>
      <trkpt lat="42.43226" lon="0.08018">
        <ele>576.8</ele>
        <time>2016-07-31T10:47:15Z</time>
      </trkpt>
      <trkpt lat="42.43222" lon="0.08021">
        <ele>576.7</ele>
        <time>2016-07-31T10:47:16Z</time>
      </trkpt>
      <trkpt lat="42.43218" lon="0.08024">
        <ele>576.5</ele>
        <time>2016-07-31T10:47:17Z</time>
      </trkpt>
      <trkpt lat="42.43213" lon="0.08027">
        <ele>576.4</ele>
        <time>2016-07-31T10:47:18Z</time>
      </trkpt>
      <trkpt lat="42.43209" lon="0.0803">
        <ele>576.3</ele>
        <time>2016-07-31T10:47:19Z</time>
      </trkpt>
      <trkpt lat="42.43205" lon="0.08033">
        <ele>576.3</ele>
        <time>2016-07-31T10:47:20Z</time>
      </trkpt>
      <trkpt lat="42.43201" lon="0.08036">
        <ele>576.2</ele>
        <time>2016-07-31T10:47:21Z</time>
      </trkpt>
      <trkpt lat="42.43197" lon="0.08039">
        <ele>576.2</ele>
        <time>2016-07-31T10:47:22Z</time>
      </trkpt>
      <trkpt lat="42.43192" lon="0.08042">
        <ele>576.2</ele>
        <time>2016-07-31T10:47:23Z</time>
      </trkpt>
      <trkpt lat="42.43188" lon="0.08045">
        <ele>576.3</ele>
        <time>2016-07-31T10:47:24Z</time>
      </trkpt>
      <trkpt lat="42.43184" lon="0.08048">
        <ele>576.4</ele>
        <time>2016-07-31T10:47:25Z</time>
      </trkpt>
      <trkpt lat="42.4318" lon="0.0805">
        <ele>576.5</ele>
        <time>2016-07-31T10:47:26Z</time>
      </trkpt>
      <trkpt lat="42.43176" lon="0.08053">
        <ele>576.6</ele>
        <time>2016-07-31T10:47:27Z</time>
      </trkpt>
      <trkpt lat="42.43171" lon="0.08056">
        <ele>576.7</ele>
        <time>2016-07-31T10:47:28Z</time>
      </trkpt>
      <trkpt lat="42.43167" lon="0.08058">
        <ele>576.8</ele>
        <time>2016-07-31T10:47:29Z</time>
      </trkpt>
      <trkpt lat="42.43162" lon="0.08061">
        <ele>576.9</ele>
        <time>2016-07-31T10:47:30Z</time>
      </trkpt>
      <trkpt lat="42.43157" lon="0.08063">
        <ele>577</ele>
        <time>2016-07-31T10:47:31Z</time>
      </trkpt>
      <trkpt lat="42.43153" lon="0.08066">
        <ele>577.1</ele>
        <time>2016-07-31T10:47:32Z</time>
      </trkpt>
      <trkpt lat="42.43148" lon="0.08068">
        <ele>577.3</ele>
        <time>2016-07-31T10:47:33Z</time>
      </trkpt>
      <trkpt lat="42.43144" lon="0.08071">
        <ele>577.4</ele>
        <time>2016-07-31T10:47:34Z</time>
      </trkpt>
      <trkpt lat="42.43139" lon="0.08074">
        <ele>577.5</ele>
        <time>2016-07-31T10:47:35Z</time>
      </trkpt>
      <trkpt lat="42.43134" lon="0.08076">
        <ele>577.7</ele>
        <time>2016-07-31T10:47:36Z</time>
      </trkpt>
      <trkpt lat="42.4313" lon="0.08078">
        <ele>577.8</ele>
        <time>2016-07-31T10:47:37Z</time>
      </trkpt>
      <trkpt lat="42.43125" lon="0.08081">
        <ele>577.9</ele>
        <time>2016-07-31T10:47:38Z</time>
      </trkpt>
      <trkpt lat="42.4312" lon="0.08083">
        <ele>578.4</ele>
        <time>2016-07-31T10:47:39Z</time>
      </trkpt>
      <trkpt lat="42.43115" lon="0.08086">
        <ele>578.8</ele>
        <time>2016-07-31T10:47:40Z</time>
      </trkpt>
      <trkpt lat="42.43111" lon="0.08088">
        <ele>579.2</ele>
        <time>2016-07-31T10:47:41Z</time>
      </trkpt>
      <trkpt lat="42.43107" lon="0.0809">
        <ele>579.6</ele>
        <time>2016-07-31T10:47:42Z</time>
      </trkpt>
      <trkpt lat="42.43103" lon="0.08092">
        <ele>579.9</ele>
        <time>2016-07-31T10:47:43Z</time>
      </trkpt>
      <trkpt lat="42.43098" lon="0.08094">
        <ele>580.2</ele>
        <time>2016-07-31T10:47:44Z</time>
      </trkpt>
      <trkpt lat="42.43094" lon="0.08096">
        <ele>580.5</ele>
        <time>2016-07-31T10:47:45Z</time>
      </trkpt>
      <trkpt lat="42.4309" lon="0.08099">
        <ele>580.7</ele>
        <time>2016-07-31T10:47:46Z</time>
      </trkpt>
      <trkpt lat="42.43085" lon="0.08101">
        <ele>580.9</ele>
        <time>2016-07-31T10:47:47Z</time>
      </trkpt>
      <trkpt lat="42.43081" lon="0.08104">
        <ele>581.2</ele>
        <time>2016-07-31T10:47:48Z</time>
      </trkpt>
      <trkpt lat="42.43077" lon="0.08106">
        <ele>581.3</ele>
        <time>2016-07-31T10:47:49Z</time>
      </trkpt>
      <trkpt lat="42.43072" lon="0.08108">
        <ele>581.5</ele>
        <time>2016-07-31T10:47:50Z</time>
      </trkpt>
      <trkpt lat="42.43068" lon="0.0811">
        <ele>581.7</ele>
        <time>2016-07-31T10:47:51Z</time>
      </trkpt>
      <trkpt lat="42.43064" lon="0.08112">
        <ele>581.8</ele>
        <time>2016-07-31T10:47:52Z</time>
      </trkpt>
      <trkpt lat="42.4306" lon="0.08114">
        <ele>581.9</ele>
        <time>2016-07-31T10:47:53Z</time>
      </trkpt>
      <trkpt lat="42.43056" lon="0.08117">
        <ele>582</ele>
        <time>2016-07-31T10:47:54Z</time>
      </trkpt>
      <trkpt lat="42.43052" lon="0.08119">
        <ele>582</ele>
        <time>2016-07-31T10:47:55Z</time>
      </trkpt>
      <trkpt lat="42.43048" lon="0.08121">
        <ele>582</ele>
        <time>2016-07-31T10:47:56Z</time>
      </trkpt>
      <trkpt lat="42.43044" lon="0.08123">
        <ele>582</ele>
        <time>2016-07-31T10:47:57Z</time>
      </trkpt>
      <trkpt lat="42.4304" lon="0.08125">
        <ele>582.3</ele>
        <time>2016-07-31T10:47:58Z</time>
      </trkpt>
      <trkpt lat="42.43037" lon="0.08127">
        <ele>582.9</ele>
        <time>2016-07-31T10:47:59Z</time>
      </trkpt>
      <trkpt lat="42.43034" lon="0.08129">
        <ele>583.5</ele>
        <time>2016-07-31T10:48:00Z</time>
      </trkpt>
      <trkpt lat="42.4303" lon="0.08131">
        <ele>584.2</ele>
        <time>2016-07-31T10:48:01Z</time>
      </trkpt>
      <trkpt lat="42.43027" lon="0.08134">
        <ele>584.8</ele>
        <time>2016-07-31T10:48:02Z</time>
      </trkpt>
      <trkpt lat="42.43023" lon="0.08136">
        <ele>585.4</ele>
        <time>2016-07-31T10:48:03Z</time>
      </trkpt>
      <trkpt lat="42.43019" lon="0.08138">
        <ele>586</ele>
        <time>2016-07-31T10:48:04Z</time>
      </trkpt>
      <trkpt lat="42.43015" lon="0.08141">
        <ele>586.6</ele>
        <time>2016-07-31T10:48:05Z</time>
      </trkpt>
      <trkpt lat="42.43011" lon="0.08144">
        <ele>587.1</ele>
        <time>2016-07-31T10:48:06Z</time>
      </trkpt>
      <trkpt lat="42.43007" lon="0.08147">
        <ele>587.5</ele>
        <time>2016-07-31T10:48:07Z</time>
      </trkpt>
      <trkpt lat="42.43004" lon="0.0815">
        <ele>587.9</ele>
        <time>2016-07-31T10:48:08Z</time>
      </trkpt>
      <trkpt lat="42.43001" lon="0.08153">
        <ele>588.2</ele>
        <time>2016-07-31T10:48:09Z</time>
      </trkpt>
      <trkpt lat="42.42998" lon="0.08155">
        <ele>588.5</ele>
        <time>2016-07-31T10:48:10Z</time>
      </trkpt>
      <trkpt lat="42.42994" lon="0.08158">
        <ele>588.8</ele>
        <time>2016-07-31T10:48:11Z</time>
      </trkpt>
      <trkpt lat="42.42991" lon="0.08161">
        <ele>589</ele>
        <time>2016-07-31T10:48:12Z</time>
      </trkpt>
      <trkpt lat="42.42988" lon="0.08164">
        <ele>589.2</ele>
        <time>2016-07-31T10:48:13Z</time>
      </trkpt>
      <trkpt lat="42.42984" lon="0.08167">
        <ele>589.4</ele>
        <time>2016-07-31T10:48:14Z</time>
      </trkpt>
      <trkpt lat="42.42981" lon="0.0817">
        <ele>589.5</ele>
        <time>2016-07-31T10:48:15Z</time>
      </trkpt>
      <trkpt lat="42.42978" lon="0.08174">
        <ele>589.6</ele>
        <time>2016-07-31T10:48:16Z</time>
      </trkpt>
      <trkpt lat="42.42975" lon="0.08178">
        <ele>589.4</ele>
        <time>2016-07-31T10:48:17Z</time>
      </trkpt>
      <trkpt lat="42.42972" lon="0.08182">
        <ele>589.2</ele>
        <time>2016-07-31T10:48:18Z</time>
      </trkpt>
      <trkpt lat="42.4297" lon="0.08187">
        <ele>588.8</ele>
        <time>2016-07-31T10:48:19Z</time>
      </trkpt>
      <trkpt lat="42.42968" lon="0.08193">
        <ele>588.3</ele>
        <time>2016-07-31T10:48:20Z</time>
      </trkpt>
      <trkpt lat="42.42966" lon="0.08198">
        <ele>587.8</ele>
        <time>2016-07-31T10:48:21Z</time>
      </trkpt>
      <trkpt lat="42.42964" lon="0.08202">
        <ele>587.4</ele>
        <time>2016-07-31T10:48:22Z</time>
      </trkpt>
      <trkpt lat="42.42962" lon="0.08206">
        <ele>587.1</ele>
        <time>2016-07-31T10:48:23Z</time>
      </trkpt>
      <trkpt lat="42.42959" lon="0.08208">
        <ele>587</ele>
        <time>2016-07-31T10:48:24Z</time>
      </trkpt>
      <trkpt lat="42.42955" lon="0.08208">
        <ele>587.1</ele>
        <time>2016-07-31T10:48:25Z</time>
      </trkpt>
      <trkpt lat="42.42951" lon="0.08206">
        <ele>587.4</ele>
        <time>2016-07-31T10:48:26Z</time>
      </trkpt>
      <trkpt lat="42.42947" lon="0.08203">
        <ele>587.9</ele>
        <time>2016-07-31T10:48:27Z</time>
      </trkpt>
      <trkpt lat="42.42942" lon="0.082">
        <ele>588.4</ele>
        <time>2016-07-31T10:48:28Z</time>
      </trkpt>
      <trkpt lat="42.42938" lon="0.08197">
        <ele>589</ele>
        <time>2016-07-31T10:48:29Z</time>
      </trkpt>
      <trkpt lat="42.42934" lon="0.08194">
        <ele>589.6</ele>
        <time>2016-07-31T10:48:30Z</time>
      </trkpt>
      <trkpt lat="42.42929" lon="0.08191">
        <ele>590.1</ele>
        <time>2016-07-31T10:48:31Z</time>
      </trkpt>
      <trkpt lat="42.42925" lon="0.08188">
        <ele>590.6</ele>
        <time>2016-07-31T10:48:32Z</time>
      </trkpt>
      <trkpt lat="42.42921" lon="0.08186">
        <ele>591.1</ele>
        <time>2016-07-31T10:48:33Z</time>
      </trkpt>
      <trkpt lat="42.42917" lon="0.08183">
        <ele>591.7</ele>
        <time>2016-07-31T10:48:34Z</time>
      </trkpt>
      <trkpt lat="42.42913" lon="0.08181">
        <ele>592.2</ele>
        <time>2016-07-31T10:48:35Z</time>
      </trkpt>
      <trkpt lat="42.42909" lon="0.08178">
        <ele>592.8</ele>
        <time>2016-07-31T10:48:36Z</time>
      </trkpt>
      <trkpt lat="42.42905" lon="0.08175">
        <ele>593.4</ele>
        <time>2016-07-31T10:48:37Z</time>
      </trkpt>
      <trkpt lat="42.42901" lon="0.08173">
        <ele>594</ele>
        <time>2016-07-31T10:48:38Z</time>
      </trkpt>
      <trkpt lat="42.42897" lon="0.08171">
        <ele>594.6</ele>
        <time>2016-07-31T10:48:39Z</time>
      </trkpt>
      <trkpt lat="42.42894" lon="0.08168">
        <ele>595.2</ele>
        <time>2016-07-31T10:48:40Z</time>
      </trkpt>
      <trkpt lat="42.4289" lon="0.08166">
        <ele>595.8</ele>
        <time>2016-07-31T10:48:41Z</time>
      </trkpt>
      <trkpt lat="42.42886" lon="0.08163">
        <ele>596.4</ele>
        <time>2016-07-31T10:48:42Z</time>
      </trkpt>
      <trkpt lat="42.42882" lon="0.08161">
        <ele>597.1</ele>
        <time>2016-07-31T10:48:43Z</time>
      </trkpt>
      <trkpt lat="42.42878" lon="0.08158">
        <ele>597.7</ele>
        <time>2016-07-31T10:48:44Z</time>
      </trkpt>
      <trkpt lat="42.42875" lon="0.08156">
        <ele>598.2</ele>
        <time>2016-07-31T10:48:45Z</time>
      </trkpt>
      <trkpt lat="42.42871" lon="0.08154">
        <ele>598.3</ele>
        <time>2016-07-31T10:48:46Z</time>
      </trkpt>
      <trkpt lat="42.42867" lon="0.08151">
        <ele>598.3</ele>
        <time>2016-07-31T10:48:47Z</time>
      </trkpt>
      <trkpt lat="42.42863" lon="0.08149">
        <ele>598.3</ele>
        <time>2016-07-31T10:48:48Z</time>
      </trkpt>
      <trkpt lat="42.42859" lon="0.08146">
        <ele>598.1</ele>
        <time>2016-07-31T10:48:49Z</time>
      </trkpt>
      <trkpt lat="42.42856" lon="0.08144">
        <ele>598</ele>
        <time>2016-07-31T10:48:50Z</time>
      </trkpt>
      <trkpt lat="42.42852" lon="0.08142">
        <ele>597.7</ele>
        <time>2016-07-31T10:48:51Z</time>
      </trkpt>
      <trkpt lat="42.42848" lon="0.0814">
        <ele>597.5</ele>
        <time>2016-07-31T10:48:52Z</time>
      </trkpt>
      <trkpt lat="42.42844" lon="0.08137">
        <ele>597.1</ele>
        <time>2016-07-31T10:48:53Z</time>
      </trkpt>
      <trkpt lat="42.4284" lon="0.08135">
        <ele>596.8</ele>
        <time>2016-07-31T10:48:54Z</time>
      </trkpt>
      <trkpt lat="42.42837" lon="0.08133">
        <ele>596.4</ele>
        <time>2016-07-31T10:48:55Z</time>
      </trkpt>
      <trkpt lat="42.42833" lon="0.08131">
        <ele>595.9</ele>
        <time>2016-07-31T10:48:56Z</time>
      </trkpt>
      <trkpt lat="42.4283" lon="0.08129">
        <ele>595.4</ele>
        <time>2016-07-31T10:48:57Z</time>
      </trkpt>
      <trkpt lat="42.42826" lon="0.08127">
        <ele>594.9</ele>
        <time>2016-07-31T10:48:58Z</time>
      </trkpt>
      <trkpt lat="42.42823" lon="0.08124">
        <ele>594.4</ele>
        <time>2016-07-31T10:48:59Z</time>
      </trkpt>
      <trkpt lat="42.42819" lon="0.08122">
        <ele>593.9</ele>
        <time>2016-07-31T10:49:00Z</time>
      </trkpt>
      <trkpt lat="42.42815" lon="0.0812">
        <ele>593.4</ele>
        <time>2016-07-31T10:49:01Z</time>
      </trkpt>
      <trkpt lat="42.42811" lon="0.08117">
        <ele>592.8</ele>
        <time>2016-07-31T10:49:02Z</time>
      </trkpt>
      <trkpt lat="42.42808" lon="0.08115">
        <ele>592.3</ele>
        <time>2016-07-31T10:49:03Z</time>
      </trkpt>
      <trkpt lat="42.42803" lon="0.08112">
        <ele>591.6</ele>
        <time>2016-07-31T10:49:04Z</time>
      </trkpt>
      <trkpt lat="42.42799" lon="0.0811">
        <ele>591</ele>
        <time>2016-07-31T10:49:05Z</time>
      </trkpt>
      <trkpt lat="42.42795" lon="0.08107">
        <ele>590.3</ele>
        <time>2016-07-31T10:49:06Z</time>
      </trkpt>
      <trkpt lat="42.42791" lon="0.08104">
        <ele>589.8</ele>
        <time>2016-07-31T10:49:07Z</time>
      </trkpt>
      <trkpt lat="42.42788" lon="0.081">
        <ele>590</ele>
        <time>2016-07-31T10:49:08Z</time>
      </trkpt>
      <trkpt lat="42.42783" lon="0.08097">
        <ele>590.1</ele>
        <time>2016-07-31T10:49:09Z</time>
      </trkpt>
      <trkpt lat="42.42779" lon="0.08093">
        <ele>590.3</ele>
        <time>2016-07-31T10:49:10Z</time>
      </trkpt>
      <trkpt lat="42.42775" lon="0.0809">
        <ele>590.4</ele>
        <time>2016-07-31T10:49:11Z</time>
      </trkpt>
      <trkpt lat="42.42771" lon="0.08086">
        <ele>590.5</ele>
        <time>2016-07-31T10:49:12Z</time>
      </trkpt>
      <trkpt lat="42.42767" lon="0.08083">
        <ele>590.5</ele>
        <time>2016-07-31T10:49:13Z</time>
      </trkpt>
      <trkpt lat="42.42764" lon="0.0808">
        <ele>590.5</ele>
        <time>2016-07-31T10:49:14Z</time>
      </trkpt>
      <trkpt lat="42.4276" lon="0.08076">
        <ele>590.5</ele>
        <time>2016-07-31T10:49:15Z</time>
      </trkpt>
      <trkpt lat="42.42756" lon="0.08073">
        <ele>590.5</ele>
        <time>2016-07-31T10:49:16Z</time>
      </trkpt>
      <trkpt lat="42.42752" lon="0.0807">
        <ele>590.4</ele>
        <time>2016-07-31T10:49:17Z</time>
      </trkpt>
      <trkpt lat="42.42749" lon="0.08066">
        <ele>590.4</ele>
        <time>2016-07-31T10:49:18Z</time>
      </trkpt>
      <trkpt lat="42.42746" lon="0.08062">
        <ele>590.4</ele>
        <time>2016-07-31T10:49:19Z</time>
      </trkpt>
      <trkpt lat="42.42743" lon="0.08057">
        <ele>590.4</ele>
        <time>2016-07-31T10:49:20Z</time>
      </trkpt>
      <trkpt lat="42.4274" lon="0.08053">
        <ele>590.3</ele>
        <time>2016-07-31T10:49:21Z</time>
      </trkpt>
      <trkpt lat="42.42738" lon="0.08048">
        <ele>590.3</ele>
        <time>2016-07-31T10:49:22Z</time>
      </trkpt>
      <trkpt lat="42.42736" lon="0.08044">
        <ele>590.2</ele>
        <time>2016-07-31T10:49:23Z</time>
      </trkpt>
      <trkpt lat="42.42734" lon="0.0804">
        <ele>590.2</ele>
        <time>2016-07-31T10:49:24Z</time>
      </trkpt>
      <trkpt lat="42.42732" lon="0.08035">
        <ele>590.1</ele>
        <time>2016-07-31T10:49:25Z</time>
      </trkpt>
      <trkpt lat="42.4273" lon="0.0803">
        <ele>590.1</ele>
        <time>2016-07-31T10:49:26Z</time>
      </trkpt>
      <trkpt lat="42.42728" lon="0.08025">
        <ele>590.1</ele>
        <time>2016-07-31T10:49:27Z</time>
      </trkpt>
      <trkpt lat="42.42727" lon="0.0802">
        <ele>590.1</ele>
        <time>2016-07-31T10:49:28Z</time>
      </trkpt>
      <trkpt lat="42.42725" lon="0.08015">
        <ele>590.1</ele>
        <time>2016-07-31T10:49:29Z</time>
      </trkpt>
      <trkpt lat="42.42724" lon="0.0801">
        <ele>590.2</ele>
        <time>2016-07-31T10:49:30Z</time>
      </trkpt>
      <trkpt lat="42.42723" lon="0.08005">
        <ele>590.2</ele>
        <time>2016-07-31T10:49:31Z</time>
      </trkpt>
      <trkpt lat="42.42721" lon="0.08">
        <ele>590.3</ele>
        <time>2016-07-31T10:49:32Z</time>
      </trkpt>
      <trkpt lat="42.4272" lon="0.07995">
        <ele>590.4</ele>
        <time>2016-07-31T10:49:33Z</time>
      </trkpt>
      <trkpt lat="42.42719" lon="0.0799">
        <ele>590.4</ele>
        <time>2016-07-31T10:49:34Z</time>
      </trkpt>
      <trkpt lat="42.42718" lon="0.07985">
        <ele>590.5</ele>
        <time>2016-07-31T10:49:35Z</time>
      </trkpt>
      <trkpt lat="42.42716" lon="0.0798">
        <ele>590.6</ele>
        <time>2016-07-31T10:49:36Z</time>
      </trkpt>
      <trkpt lat="42.42715" lon="0.07976">
        <ele>590.7</ele>
        <time>2016-07-31T10:49:37Z</time>
      </trkpt>
      <trkpt lat="42.42713" lon="0.07971">
        <ele>590.8</ele>
        <time>2016-07-31T10:49:38Z</time>
      </trkpt>
      <trkpt lat="42.42712" lon="0.07966">
        <ele>590.9</ele>
        <time>2016-07-31T10:49:39Z</time>
      </trkpt>
      <trkpt lat="42.42711" lon="0.07961">
        <ele>591</ele>
        <time>2016-07-31T10:49:40Z</time>
      </trkpt>
      <trkpt lat="42.4271" lon="0.07956">
        <ele>591.1</ele>
        <time>2016-07-31T10:49:41Z</time>
      </trkpt>
      <trkpt lat="42.42708" lon="0.07952">
        <ele>591.2</ele>
        <time>2016-07-31T10:49:42Z</time>
      </trkpt>
      <trkpt lat="42.42707" lon="0.07948">
        <ele>591.6</ele>
        <time>2016-07-31T10:49:43Z</time>
      </trkpt>
      <trkpt lat="42.42705" lon="0.07943">
        <ele>592</ele>
        <time>2016-07-31T10:49:44Z</time>
      </trkpt>
      <trkpt lat="42.42704" lon="0.07939">
        <ele>592.5</ele>
        <time>2016-07-31T10:49:45Z</time>
      </trkpt>
      <trkpt lat="42.42702" lon="0.07934">
        <ele>592.9</ele>
        <time>2016-07-31T10:49:46Z</time>
      </trkpt>
      <trkpt lat="42.42701" lon="0.0793">
        <ele>593.3</ele>
        <time>2016-07-31T10:49:47Z</time>
      </trkpt>
      <trkpt lat="42.42699" lon="0.07926">
        <ele>593.6</ele>
        <time>2016-07-31T10:49:48Z</time>
      </trkpt>
      <trkpt lat="42.42698" lon="0.07922">
        <ele>593.9</ele>
        <time>2016-07-31T10:49:49Z</time>
      </trkpt>
      <trkpt lat="42.42696" lon="0.07918">
        <ele>594.2</ele>
        <time>2016-07-31T10:49:50Z</time>
      </trkpt>
      <trkpt lat="42.42695" lon="0.07915">
        <ele>594.6</ele>
        <time>2016-07-31T10:49:51Z</time>
      </trkpt>
      <trkpt lat="42.42693" lon="0.07911">
        <ele>595</ele>
        <time>2016-07-31T10:49:52Z</time>
      </trkpt>
      <trkpt lat="42.4269" lon="0.07907">
        <ele>595.4</ele>
        <time>2016-07-31T10:49:53Z</time>
      </trkpt>
      <trkpt lat="42.42687" lon="0.07902">
        <ele>595.9</ele>
        <time>2016-07-31T10:49:54Z</time>
      </trkpt>
      <trkpt lat="42.42683" lon="0.07897">
        <ele>596.5</ele>
        <time>2016-07-31T10:49:55Z</time>
      </trkpt>
      <trkpt lat="42.42679" lon="0.07892">
        <ele>597.1</ele>
        <time>2016-07-31T10:49:56Z</time>
      </trkpt>
      <trkpt lat="42.42675" lon="0.07887">
        <ele>597.6</ele>
        <time>2016-07-31T10:49:57Z</time>
      </trkpt>
      <trkpt lat="42.42671" lon="0.07881">
        <ele>598</ele>
        <time>2016-07-31T10:49:58Z</time>
      </trkpt>
      <trkpt lat="42.42667" lon="0.07876">
        <ele>598.4</ele>
        <time>2016-07-31T10:49:59Z</time>
      </trkpt>
      <trkpt lat="42.42663" lon="0.07872">
        <ele>598.8</ele>
        <time>2016-07-31T10:50:00Z</time>
      </trkpt>
      <trkpt lat="42.42659" lon="0.07869">
        <ele>599.2</ele>
        <time>2016-07-31T10:50:01Z</time>
      </trkpt>
      <trkpt lat="42.42656" lon="0.07867">
        <ele>599.4</ele>
        <time>2016-07-31T10:50:02Z</time>
      </trkpt>
      <trkpt lat="42.42652" lon="0.07864">
        <ele>599.6</ele>
        <time>2016-07-31T10:50:03Z</time>
      </trkpt>
      <trkpt lat="42.4265" lon="0.0786">
        <ele>599.7</ele>
        <time>2016-07-31T10:50:04Z</time>
      </trkpt>
      <trkpt lat="42.42647" lon="0.07856">
        <ele>599.7</ele>
        <time>2016-07-31T10:50:05Z</time>
      </trkpt>
      <trkpt lat="42.42645" lon="0.07853">
        <ele>599.7</ele>
        <time>2016-07-31T10:50:06Z</time>
      </trkpt>
      <trkpt lat="42.42642" lon="0.07849">
        <ele>599.6</ele>
        <time>2016-07-31T10:50:07Z</time>
      </trkpt>
      <trkpt lat="42.4264" lon="0.07846">
        <ele>599.5</ele>
        <time>2016-07-31T10:50:08Z</time>
      </trkpt>
      <trkpt lat="42.42637" lon="0.07843">
        <ele>599.5</ele>
        <time>2016-07-31T10:50:09Z</time>
      </trkpt>
      <trkpt lat="42.42634" lon="0.0784">
        <ele>599.6</ele>
        <time>2016-07-31T10:50:10Z</time>
      </trkpt>
      <trkpt lat="42.4263" lon="0.07838">
        <ele>599.7</ele>
        <time>2016-07-31T10:50:11Z</time>
      </trkpt>
      <trkpt lat="42.42626" lon="0.07837">
        <ele>599.8</ele>
        <time>2016-07-31T10:50:12Z</time>
      </trkpt>
      <trkpt lat="42.42622" lon="0.07836">
        <ele>600.6</ele>
        <time>2016-07-31T10:50:13Z</time>
      </trkpt>
      <trkpt lat="42.42619" lon="0.07835">
        <ele>601.7</ele>
        <time>2016-07-31T10:50:14Z</time>
      </trkpt>
      <trkpt lat="42.42615" lon="0.07833">
        <ele>602.7</ele>
        <time>2016-07-31T10:50:15Z</time>
      </trkpt>
      <trkpt lat="42.42611" lon="0.07832">
        <ele>603.8</ele>
        <time>2016-07-31T10:50:16Z</time>
      </trkpt>
      <trkpt lat="42.42607" lon="0.0783">
        <ele>604.8</ele>
        <time>2016-07-31T10:50:17Z</time>
      </trkpt>
      <trkpt lat="42.42603" lon="0.07828">
        <ele>605.8</ele>
        <time>2016-07-31T10:50:18Z</time>
      </trkpt>
      <trkpt lat="42.42599" lon="0.07826">
        <ele>606.7</ele>
        <time>2016-07-31T10:50:19Z</time>
      </trkpt>
      <trkpt lat="42.42596" lon="0.07824">
        <ele>607.5</ele>
        <time>2016-07-31T10:50:20Z</time>
      </trkpt>
      <trkpt lat="42.42592" lon="0.07822">
        <ele>608.4</ele>
        <time>2016-07-31T10:50:21Z</time>
      </trkpt>
      <trkpt lat="42.42588" lon="0.0782">
        <ele>609.2</ele>
        <time>2016-07-31T10:50:22Z</time>
      </trkpt>
      <trkpt lat="42.42585" lon="0.07818">
        <ele>610.1</ele>
        <time>2016-07-31T10:50:23Z</time>
      </trkpt>
      <trkpt lat="42.42582" lon="0.07816">
        <ele>610.8</ele>
        <time>2016-07-31T10:50:24Z</time>
      </trkpt>
      <trkpt lat="42.42579" lon="0.07814">
        <ele>611.3</ele>
        <time>2016-07-31T10:50:25Z</time>
      </trkpt>
      <trkpt lat="42.42576" lon="0.07811">
        <ele>611.8</ele>
        <time>2016-07-31T10:50:26Z</time>
      </trkpt>
      <trkpt lat="42.42574" lon="0.07808">
        <ele>612.1</ele>
        <time>2016-07-31T10:50:27Z</time>
      </trkpt>
      <trkpt lat="42.42571" lon="0.07806">
        <ele>612.5</ele>
        <time>2016-07-31T10:50:28Z</time>
      </trkpt>
      <trkpt lat="42.42569" lon="0.07803">
        <ele>612.9</ele>
        <time>2016-07-31T10:50:29Z</time>
      </trkpt>
      <trkpt lat="42.42566" lon="0.07801">
        <ele>613.3</ele>
        <time>2016-07-31T10:50:30Z</time>
      </trkpt>
      <trkpt lat="42.42564" lon="0.07799">
        <ele>613.7</ele>
        <time>2016-07-31T10:50:31Z</time>
      </trkpt>
      <trkpt lat="42.4256" lon="0.07794">
        <ele>613.9</ele>
        <time>2016-07-31T10:50:33Z</time>
      </trkpt>
      <trkpt lat="42.42558" lon="0.07788">
        <ele>613.9</ele>
        <time>2016-07-31T10:50:35Z</time>
      </trkpt>
      <trkpt lat="42.42556" lon="0.07785">
        <ele>614</ele>
        <time>2016-07-31T10:50:36Z</time>
      </trkpt>
      <trkpt lat="42.42554" lon="0.07782">
        <ele>614.2</ele>
        <time>2016-07-31T10:50:37Z</time>
      </trkpt>
      <trkpt lat="42.42553" lon="0.07779">
        <ele>614.3</ele>
        <time>2016-07-31T10:50:38Z</time>
      </trkpt>
      <trkpt lat="42.4255" lon="0.07776">
        <ele>614.5</ele>
        <time>2016-07-31T10:50:39Z</time>
      </trkpt>
      <trkpt lat="42.42548" lon="0.07773">
        <ele>614.7</ele>
        <time>2016-07-31T10:50:40Z</time>
      </trkpt>
      <trkpt lat="42.42546" lon="0.07769">
        <ele>614.8</ele>
        <time>2016-07-31T10:50:41Z</time>
      </trkpt>
      <trkpt lat="42.42543" lon="0.07766">
        <ele>614.9</ele>
        <time>2016-07-31T10:50:42Z</time>
      </trkpt>
      <trkpt lat="42.42541" lon="0.07763">
        <ele>614.9</ele>
        <time>2016-07-31T10:50:43Z</time>
      </trkpt>
      <trkpt lat="42.42539" lon="0.0776">
        <ele>614.7</ele>
        <time>2016-07-31T10:50:44Z</time>
      </trkpt>
      <trkpt lat="42.42536" lon="0.07757">
        <ele>614.5</ele>
        <time>2016-07-31T10:50:46Z</time>
      </trkpt>
      <trkpt lat="42.42533" lon="0.07754">
        <ele>614.4</ele>
        <time>2016-07-31T10:50:48Z</time>
      </trkpt>
      <trkpt lat="42.4253" lon="0.07751">
        <ele>614.1</ele>
        <time>2016-07-31T10:50:50Z</time>
      </trkpt>
      <trkpt lat="42.42528" lon="0.07746">
        <ele>613.6</ele>
        <time>2016-07-31T10:50:52Z</time>
      </trkpt>
      <trkpt lat="42.42524" lon="0.0774">
        <ele>613</ele>
        <time>2016-07-31T10:50:54Z</time>
      </trkpt>
      <trkpt lat="42.42521" lon="0.07735">
        <ele>612.4</ele>
        <time>2016-07-31T10:50:56Z</time>
      </trkpt>
      <trkpt lat="42.42519" lon="0.07729">
        <ele>611.6</ele>
        <time>2016-07-31T10:50:58Z</time>
      </trkpt>
      <trkpt lat="42.42518" lon="0.07725">
        <ele>611.1</ele>
        <time>2016-07-31T10:50:59Z</time>
      </trkpt>
      <trkpt lat="42.42518" lon="0.07719">
        <ele>610.1</ele>
        <time>2016-07-31T10:51:01Z</time>
      </trkpt>
      <trkpt lat="42.42518" lon="0.07713">
        <ele>609.1</ele>
        <time>2016-07-31T10:51:03Z</time>
      </trkpt>
      <trkpt lat="42.4252" lon="0.07708">
        <ele>608.3</ele>
        <time>2016-07-31T10:51:05Z</time>
      </trkpt>
      <trkpt lat="42.42522" lon="0.07703">
        <ele>608.4</ele>
        <time>2016-07-31T10:51:07Z</time>
      </trkpt>
      <trkpt lat="42.42523" lon="0.07696">
        <ele>608.6</ele>
        <time>2016-07-31T10:51:09Z</time>
      </trkpt>
      <trkpt lat="42.42524" lon="0.07689">
        <ele>608.7</ele>
        <time>2016-07-31T10:51:11Z</time>
      </trkpt>
      <trkpt lat="42.42526" lon="0.07684">
        <ele>608.8</ele>
        <time>2016-07-31T10:51:13Z</time>
      </trkpt>
      <trkpt lat="42.42529" lon="0.07679">
        <ele>608.7</ele>
        <time>2016-07-31T10:51:15Z</time>
      </trkpt>
      <trkpt lat="42.42532" lon="0.07675">
        <ele>608.6</ele>
        <time>2016-07-31T10:51:17Z</time>
      </trkpt>
      <trkpt lat="42.42534" lon="0.07672">
        <ele>608.6</ele>
        <time>2016-07-31T10:51:19Z</time>
      </trkpt>
      <trkpt lat="42.42535" lon="0.07668">
        <ele>608.6</ele>
        <time>2016-07-31T10:51:22Z</time>
      </trkpt>
      <trkpt lat="42.42536" lon="0.07664">
        <ele>608.6</ele>
        <time>2016-07-31T10:51:24Z</time>
      </trkpt>
      <trkpt lat="42.42535" lon="0.07659">
        <ele>608.8</ele>
        <time>2016-07-31T10:51:26Z</time>
      </trkpt>
      <trkpt lat="42.42534" lon="0.07655">
        <ele>609.1</ele>
        <time>2016-07-31T10:51:28Z</time>
      </trkpt>
      <trkpt lat="42.42531" lon="0.0765">
        <ele>609.4</ele>
        <time>2016-07-31T10:51:30Z</time>
      </trkpt>
      <trkpt lat="42.42529" lon="0.07645">
        <ele>609.8</ele>
        <time>2016-07-31T10:51:32Z</time>
      </trkpt>
      <trkpt lat="42.42528" lon="0.07638">
        <ele>610.2</ele>
        <time>2016-07-31T10:51:34Z</time>
      </trkpt>
      <trkpt lat="42.42526" lon="0.07633">
        <ele>610.7</ele>
        <time>2016-07-31T10:51:36Z</time>
      </trkpt>
      <trkpt lat="42.42524" lon="0.07629">
        <ele>610.9</ele>
        <time>2016-07-31T10:51:37Z</time>
      </trkpt>
      <trkpt lat="42.42521" lon="0.07624">
        <ele>611.7</ele>
        <time>2016-07-31T10:51:39Z</time>
      </trkpt>
      <trkpt lat="42.42518" lon="0.07621">
        <ele>613</ele>
        <time>2016-07-31T10:51:41Z</time>
      </trkpt>
      <trkpt lat="42.42515" lon="0.07619">
        <ele>613.8</ele>
        <time>2016-07-31T10:51:43Z</time>
      </trkpt>
      <trkpt lat="42.42511" lon="0.07619">
        <ele>614.3</ele>
        <time>2016-07-31T10:51:45Z</time>
      </trkpt>
      <trkpt lat="42.42508" lon="0.07621">
        <ele>614</ele>
        <time>2016-07-31T10:51:47Z</time>
      </trkpt>
      <trkpt lat="42.42504" lon="0.07624">
        <ele>613.7</ele>
        <time>2016-07-31T10:51:49Z</time>
      </trkpt>
      <trkpt lat="42.425" lon="0.07626">
        <ele>614</ele>
        <time>2016-07-31T10:51:51Z</time>
      </trkpt>
      <trkpt lat="42.42496" lon="0.07628">
        <ele>614.4</ele>
        <time>2016-07-31T10:51:53Z</time>
      </trkpt>
      <trkpt lat="42.42493" lon="0.07629">
        <ele>614.6</ele>
        <time>2016-07-31T10:51:54Z</time>
      </trkpt>
      <trkpt lat="42.4249" lon="0.0763">
        <ele>614.9</ele>
        <time>2016-07-31T10:51:55Z</time>
      </trkpt>
      <trkpt lat="42.42484" lon="0.0763">
        <ele>615.6</ele>
        <time>2016-07-31T10:51:57Z</time>
      </trkpt>
      <trkpt lat="42.42479" lon="0.07631">
        <ele>616.2</ele>
        <time>2016-07-31T10:51:59Z</time>
      </trkpt>
      <trkpt lat="42.42474" lon="0.07628">
        <ele>616.9</ele>
        <time>2016-07-31T10:52:01Z</time>
      </trkpt>
      <trkpt lat="42.42472" lon="0.07626">
        <ele>617.4</ele>
        <time>2016-07-31T10:52:02Z</time>
      </trkpt>
      <trkpt lat="42.42469" lon="0.07623">
        <ele>618.3</ele>
        <time>2016-07-31T10:52:03Z</time>
      </trkpt>
      <trkpt lat="42.42466" lon="0.0762">
        <ele>619.2</ele>
        <time>2016-07-31T10:52:04Z</time>
      </trkpt>
      <trkpt lat="42.42463" lon="0.07618">
        <ele>619.9</ele>
        <time>2016-07-31T10:52:05Z</time>
      </trkpt>
      <trkpt lat="42.4246" lon="0.07614">
        <ele>621.2</ele>
        <time>2016-07-31T10:52:07Z</time>
      </trkpt>
      <trkpt lat="42.42456" lon="0.0761">
        <ele>622.3</ele>
        <time>2016-07-31T10:52:09Z</time>
      </trkpt>
      <trkpt lat="42.42454" lon="0.07607">
        <ele>622.9</ele>
        <time>2016-07-31T10:52:10Z</time>
      </trkpt>
      <trkpt lat="42.42451" lon="0.07603">
        <ele>623.9</ele>
        <time>2016-07-31T10:52:12Z</time>
      </trkpt>
      <trkpt lat="42.42448" lon="0.07601">
        <ele>624.3</ele>
        <time>2016-07-31T10:52:14Z</time>
      </trkpt>
      <trkpt lat="42.42445" lon="0.07601">
        <ele>624.3</ele>
        <time>2016-07-31T10:52:16Z</time>
      </trkpt>
      <trkpt lat="42.42442" lon="0.07602">
        <ele>624.2</ele>
        <time>2016-07-31T10:52:18Z</time>
      </trkpt>
      <trkpt lat="42.42438" lon="0.07603">
        <ele>624.1</ele>
        <time>2016-07-31T10:52:20Z</time>
      </trkpt>
      <trkpt lat="42.42435" lon="0.07604">
        <ele>623.8</ele>
        <time>2016-07-31T10:52:22Z</time>
      </trkpt>
      <trkpt lat="42.42431" lon="0.07606">
        <ele>623.4</ele>
        <time>2016-07-31T10:52:24Z</time>
      </trkpt>
      <trkpt lat="42.42428" lon="0.07608">
        <ele>623</ele>
        <time>2016-07-31T10:52:26Z</time>
      </trkpt>
      <trkpt lat="42.42426" lon="0.07609">
        <ele>622.6</ele>
        <time>2016-07-31T10:52:28Z</time>
      </trkpt>
      <trkpt lat="42.42423" lon="0.0761">
        <ele>622.5</ele>
        <time>2016-07-31T10:52:30Z</time>
      </trkpt>
      <trkpt lat="42.4242" lon="0.07611">
        <ele>622.4</ele>
        <time>2016-07-31T10:52:32Z</time>
      </trkpt>
      <trkpt lat="42.42417" lon="0.07612">
        <ele>622.1</ele>
        <time>2016-07-31T10:52:34Z</time>
      </trkpt>
      <trkpt lat="42.42414" lon="0.07612">
        <ele>622</ele>
        <time>2016-07-31T10:52:36Z</time>
      </trkpt>
      <trkpt lat="42.42411" lon="0.07612">
        <ele>622.1</ele>
        <time>2016-07-31T10:52:38Z</time>
      </trkpt>
      <trkpt lat="42.42408" lon="0.07612">
        <ele>622.2</ele>
        <time>2016-07-31T10:52:40Z</time>
      </trkpt>
      <trkpt lat="42.42405" lon="0.07612">
        <ele>622.1</ele>
        <time>2016-07-31T10:52:42Z</time>
      </trkpt>
      <trkpt lat="42.42402" lon="0.07611">
        <ele>622.4</ele>
        <time>2016-07-31T10:52:44Z</time>
      </trkpt>
      <trkpt lat="42.424" lon="0.07609">
        <ele>622.9</ele>
        <time>2016-07-31T10:52:46Z</time>
      </trkpt>
      <trkpt lat="42.42397" lon="0.07607">
        <ele>623.3</ele>
        <time>2016-07-31T10:52:48Z</time>
      </trkpt>
      <trkpt lat="42.42394" lon="0.07606">
        <ele>623.6</ele>
        <time>2016-07-31T10:52:51Z</time>
      </trkpt>
      <trkpt lat="42.4239" lon="0.07605">
        <ele>623.9</ele>
        <time>2016-07-31T10:52:54Z</time>
      </trkpt>
      <trkpt lat="42.42387" lon="0.07603">
        <ele>624.4</ele>
        <time>2016-07-31T10:52:57Z</time>
      </trkpt>
      <trkpt lat="42.42385" lon="0.076">
        <ele>625.1</ele>
        <time>2016-07-31T10:53:00Z</time>
      </trkpt>
      <trkpt lat="42.42383" lon="0.07596">
        <ele>626.1</ele>
        <time>2016-07-31T10:53:03Z</time>
      </trkpt>
      <trkpt lat="42.4238" lon="0.07592">
        <ele>627.1</ele>
        <time>2016-07-31T10:53:06Z</time>
      </trkpt>
      <trkpt lat="42.42378" lon="0.07589">
        <ele>628.1</ele>
        <time>2016-07-31T10:53:09Z</time>
      </trkpt>
      <trkpt lat="42.42375" lon="0.07585">
        <ele>629</ele>
        <time>2016-07-31T10:53:12Z</time>
      </trkpt>
      <trkpt lat="42.42373" lon="0.07583">
        <ele>629.4</ele>
        <time>2016-07-31T10:53:14Z</time>
      </trkpt>
      <trkpt lat="42.4237" lon="0.07581">
        <ele>629.9</ele>
        <time>2016-07-31T10:53:17Z</time>
      </trkpt>
      <trkpt lat="42.42366" lon="0.07578">
        <ele>630.4</ele>
        <time>2016-07-31T10:53:20Z</time>
      </trkpt>
      <trkpt lat="42.42364" lon="0.07575">
        <ele>630.8</ele>
        <time>2016-07-31T10:53:22Z</time>
      </trkpt>
      <trkpt lat="42.42361" lon="0.07572">
        <ele>631.3</ele>
        <time>2016-07-31T10:53:25Z</time>
      </trkpt>
      <trkpt lat="42.42358" lon="0.07568">
        <ele>632.1</ele>
        <time>2016-07-31T10:53:28Z</time>
      </trkpt>
      <trkpt lat="42.42356" lon="0.07564">
        <ele>632.9</ele>
        <time>2016-07-31T10:53:31Z</time>
      </trkpt>
      <trkpt lat="42.42353" lon="0.07561">
        <ele>633.3</ele>
        <time>2016-07-31T10:53:34Z</time>
      </trkpt>
      <trkpt lat="42.4235" lon="0.0756">
        <ele>633.2</ele>
        <time>2016-07-31T10:53:36Z</time>
      </trkpt>
      <trkpt lat="42.42348" lon="0.07561">
        <ele>632.8</ele>
        <time>2016-07-31T10:53:38Z</time>
      </trkpt>
      <trkpt lat="42.42345" lon="0.07559">
        <ele>633</ele>
        <time>2016-07-31T10:53:41Z</time>
      </trkpt>
      <trkpt lat="42.42343" lon="0.07555">
        <ele>633.6</ele>
        <time>2016-07-31T10:53:44Z</time>
      </trkpt>
      <trkpt lat="42.4234" lon="0.07552">
        <ele>634.1</ele>
        <time>2016-07-31T10:53:47Z</time>
      </trkpt>
      <trkpt lat="42.42337" lon="0.07549">
        <ele>634.3</ele>
        <time>2016-07-31T10:53:50Z</time>
      </trkpt>
      <trkpt lat="42.42334" lon="0.07546">
        <ele>634.7</ele>
        <time>2016-07-31T10:53:53Z</time>
      </trkpt>
      <trkpt lat="42.42332" lon="0.07541">
        <ele>635.4</ele>
        <time>2016-07-31T10:53:56Z</time>
      </trkpt>
      <trkpt lat="42.4233" lon="0.07536">
        <ele>636</ele>
        <time>2016-07-31T10:53:59Z</time>
      </trkpt>
      <trkpt lat="42.42328" lon="0.07533">
        <ele>636.3</ele>
        <time>2016-07-31T10:54:01Z</time>
      </trkpt>
      <trkpt lat="42.42327" lon="0.0753">
        <ele>636.6</ele>
        <time>2016-07-31T10:54:03Z</time>
      </trkpt>
      <trkpt lat="42.42325" lon="0.07527">
        <ele>636.9</ele>
        <time>2016-07-31T10:54:05Z</time>
      </trkpt>
      <trkpt lat="42.42323" lon="0.07523">
        <ele>637.4</ele>
        <time>2016-07-31T10:54:08Z</time>
      </trkpt>
      <trkpt lat="42.4232" lon="0.07519">
        <ele>637.9</ele>
        <time>2016-07-31T10:54:11Z</time>
      </trkpt>
      <trkpt lat="42.42318" lon="0.07516">
        <ele>638.3</ele>
        <time>2016-07-31T10:54:13Z</time>
      </trkpt>
      <trkpt lat="42.42317" lon="0.07513">
        <ele>638.6</ele>
        <time>2016-07-31T10:54:15Z</time>
      </trkpt>
      <trkpt lat="42.42314" lon="0.07511">
        <ele>638.8</ele>
        <time>2016-07-31T10:54:17Z</time>
      </trkpt>
      <trkpt lat="42.42312" lon="0.07509">
        <ele>639.1</ele>
        <time>2016-07-31T10:54:19Z</time>
      </trkpt>
      <trkpt lat="42.4231" lon="0.07506">
        <ele>639.3</ele>
        <time>2016-07-31T10:54:21Z</time>
      </trkpt>
      <trkpt lat="42.42307" lon="0.07503">
        <ele>639.8</ele>
        <time>2016-07-31T10:54:23Z</time>
      </trkpt>
      <trkpt lat="42.42305" lon="0.075">
        <ele>640.2</ele>
        <time>2016-07-31T10:54:25Z</time>
      </trkpt>
      <trkpt lat="42.42303" lon="0.07497">
        <ele>640.7</ele>
        <time>2016-07-31T10:54:27Z</time>
      </trkpt>
      <trkpt lat="42.42301" lon="0.07494">
        <ele>641.1</ele>
        <time>2016-07-31T10:54:29Z</time>
      </trkpt>
      <trkpt lat="42.42299" lon="0.07491">
        <ele>641.6</ele>
        <time>2016-07-31T10:54:32Z</time>
      </trkpt>
      <trkpt lat="42.42296" lon="0.07488">
        <ele>642.2</ele>
        <time>2016-07-31T10:54:35Z</time>
      </trkpt>
      <trkpt lat="42.42294" lon="0.07486">
        <ele>642.5</ele>
        <time>2016-07-31T10:54:37Z</time>
      </trkpt>
      <trkpt lat="42.4229" lon="0.07484">
        <ele>642.7</ele>
        <time>2016-07-31T10:54:39Z</time>
      </trkpt>
      <trkpt lat="42.42287" lon="0.07484">
        <ele>642.8</ele>
        <time>2016-07-31T10:54:41Z</time>
      </trkpt>
      <trkpt lat="42.42284" lon="0.07483">
        <ele>642.9</ele>
        <time>2016-07-31T10:54:43Z</time>
      </trkpt>
      <trkpt lat="42.42282" lon="0.0748">
        <ele>643.5</ele>
        <time>2016-07-31T10:54:45Z</time>
      </trkpt>
      <trkpt lat="42.4228" lon="0.07477">
        <ele>644.1</ele>
        <time>2016-07-31T10:54:47Z</time>
      </trkpt>
      <trkpt lat="42.42278" lon="0.07474">
        <ele>644.7</ele>
        <time>2016-07-31T10:54:49Z</time>
      </trkpt>
      <trkpt lat="42.42277" lon="0.07471">
        <ele>645.5</ele>
        <time>2016-07-31T10:54:51Z</time>
      </trkpt>
      <trkpt lat="42.42276" lon="0.07467">
        <ele>646.4</ele>
        <time>2016-07-31T10:54:54Z</time>
      </trkpt>
      <trkpt lat="42.42275" lon="0.07463">
        <ele>647.3</ele>
        <time>2016-07-31T10:54:56Z</time>
      </trkpt>
      <trkpt lat="42.42274" lon="0.07459">
        <ele>648.2</ele>
        <time>2016-07-31T10:54:58Z</time>
      </trkpt>
      <trkpt lat="42.42272" lon="0.07455">
        <ele>648.7</ele>
        <time>2016-07-31T10:55:01Z</time>
      </trkpt>
      <trkpt lat="42.4227" lon="0.07451">
        <ele>649.2</ele>
        <time>2016-07-31T10:55:03Z</time>
      </trkpt>
      <trkpt lat="42.42269" lon="0.07448">
        <ele>649.6</ele>
        <time>2016-07-31T10:55:05Z</time>
      </trkpt>
      <trkpt lat="42.42268" lon="0.07444">
        <ele>650.2</ele>
        <time>2016-07-31T10:55:07Z</time>
      </trkpt>
      <trkpt lat="42.42268" lon="0.07439">
        <ele>650.7</ele>
        <time>2016-07-31T10:55:09Z</time>
      </trkpt>
      <trkpt lat="42.42266" lon="0.07435">
        <ele>651.3</ele>
        <time>2016-07-31T10:55:12Z</time>
      </trkpt>
      <trkpt lat="42.42265" lon="0.07431">
        <ele>651.7</ele>
        <time>2016-07-31T10:55:14Z</time>
      </trkpt>
      <trkpt lat="42.42264" lon="0.07428">
        <ele>652</ele>
        <time>2016-07-31T10:55:16Z</time>
      </trkpt>
      <trkpt lat="42.42261" lon="0.07424">
        <ele>652.5</ele>
        <time>2016-07-31T10:55:19Z</time>
      </trkpt>
      <trkpt lat="42.42258" lon="0.07422">
        <ele>652.8</ele>
        <time>2016-07-31T10:55:22Z</time>
      </trkpt>
      <trkpt lat="42.42255" lon="0.07422">
        <ele>652.7</ele>
        <time>2016-07-31T10:55:24Z</time>
      </trkpt>
      <trkpt lat="42.42252" lon="0.07422">
        <ele>652.7</ele>
        <time>2016-07-31T10:55:26Z</time>
      </trkpt>
      <trkpt lat="42.42249" lon="0.0742">
        <ele>652.8</ele>
        <time>2016-07-31T10:55:28Z</time>
      </trkpt>
      <trkpt lat="42.42246" lon="0.07419">
        <ele>652.9</ele>
        <time>2016-07-31T10:55:30Z</time>
      </trkpt>
      <trkpt lat="42.42243" lon="0.07417">
        <ele>653.1</ele>
        <time>2016-07-31T10:55:32Z</time>
      </trkpt>
      <trkpt lat="42.42241" lon="0.07415">
        <ele>653.2</ele>
        <time>2016-07-31T10:55:34Z</time>
      </trkpt>
      <trkpt lat="42.42239" lon="0.07411">
        <ele>653.7</ele>
        <time>2016-07-31T10:55:37Z</time>
      </trkpt>
      <trkpt lat="42.42239" lon="0.07405">
        <ele>654.3</ele>
        <time>2016-07-31T10:55:40Z</time>
      </trkpt>
      <trkpt lat="42.4224" lon="0.07402">
        <ele>654.7</ele>
        <time>2016-07-31T10:55:42Z</time>
      </trkpt>
      <trkpt lat="42.42239" lon="0.07398">
        <ele>655</ele>
        <time>2016-07-31T10:55:44Z</time>
      </trkpt>
      <trkpt lat="42.42238" lon="0.07394">
        <ele>655.4</ele>
        <time>2016-07-31T10:55:47Z</time>
      </trkpt>
      <trkpt lat="42.42236" lon="0.07389">
        <ele>655.8</ele>
        <time>2016-07-31T10:55:50Z</time>
      </trkpt>
      <trkpt lat="42.42235" lon="0.07384">
        <ele>656.3</ele>
        <time>2016-07-31T10:55:53Z</time>
      </trkpt>
      <trkpt lat="42.42235" lon="0.0738">
        <ele>656.8</ele>
        <time>2016-07-31T10:55:55Z</time>
      </trkpt>
      <trkpt lat="42.42234" lon="0.07376">
        <ele>657.2</ele>
        <time>2016-07-31T10:55:57Z</time>
      </trkpt>
      <trkpt lat="42.42234" lon="0.07372">
        <ele>657.6</ele>
        <time>2016-07-31T10:55:59Z</time>
      </trkpt>
      <trkpt lat="42.42233" lon="0.07368">
        <ele>658.1</ele>
        <time>2016-07-31T10:56:01Z</time>
      </trkpt>
      <trkpt lat="42.42232" lon="0.07365">
        <ele>658.5</ele>
        <time>2016-07-31T10:56:03Z</time>
      </trkpt>
      <trkpt lat="42.42232" lon="0.07359">
        <ele>659.3</ele>
        <time>2016-07-31T10:56:06Z</time>
      </trkpt>
      <trkpt lat="42.42231" lon="0.07355">
        <ele>659.9</ele>
        <time>2016-07-31T10:56:09Z</time>
      </trkpt>
      <trkpt lat="42.42231" lon="0.07349">
        <ele>660.6</ele>
        <time>2016-07-31T10:56:12Z</time>
      </trkpt>
      <trkpt lat="42.42231" lon="0.07345">
        <ele>661.1</ele>
        <time>2016-07-31T10:56:14Z</time>
      </trkpt>
      <trkpt lat="42.42233" lon="0.07341">
        <ele>661.8</ele>
        <time>2016-07-31T10:56:16Z</time>
      </trkpt>
      <trkpt lat="42.42234" lon="0.07337">
        <ele>662.4</ele>
        <time>2016-07-31T10:56:18Z</time>
      </trkpt>
      <trkpt lat="42.42235" lon="0.07332">
        <ele>663.1</ele>
        <time>2016-07-31T10:56:20Z</time>
      </trkpt>
      <trkpt lat="42.42236" lon="0.07328">
        <ele>663.8</ele>
        <time>2016-07-31T10:56:22Z</time>
      </trkpt>
      <trkpt lat="42.42237" lon="0.07324">
        <ele>664.4</ele>
        <time>2016-07-31T10:56:24Z</time>
      </trkpt>
      <trkpt lat="42.42238" lon="0.0732">
        <ele>665</ele>
        <time>2016-07-31T10:56:26Z</time>
      </trkpt>
      <trkpt lat="42.42239" lon="0.07316">
        <ele>665.5</ele>
        <time>2016-07-31T10:56:28Z</time>
      </trkpt>
      <trkpt lat="42.42238" lon="0.07312">
        <ele>666</ele>
        <time>2016-07-31T10:56:30Z</time>
      </trkpt>
      <trkpt lat="42.42236" lon="0.07309">
        <ele>666.4</ele>
        <time>2016-07-31T10:56:32Z</time>
      </trkpt>
      <trkpt lat="42.42235" lon="0.07305">
        <ele>666.7</ele>
        <time>2016-07-31T10:56:34Z</time>
      </trkpt>
      <trkpt lat="42.42233" lon="0.07301">
        <ele>667.2</ele>
        <time>2016-07-31T10:56:36Z</time>
      </trkpt>
      <trkpt lat="42.42231" lon="0.07297">
        <ele>667.6</ele>
        <time>2016-07-31T10:56:38Z</time>
      </trkpt>
      <trkpt lat="42.42229" lon="0.07293">
        <ele>668</ele>
        <time>2016-07-31T10:56:40Z</time>
      </trkpt>
      <trkpt lat="42.42227" lon="0.0729">
        <ele>668.5</ele>
        <time>2016-07-31T10:56:42Z</time>
      </trkpt>
      <trkpt lat="42.42225" lon="0.07286">
        <ele>668.9</ele>
        <time>2016-07-31T10:56:44Z</time>
      </trkpt>
      <trkpt lat="42.42222" lon="0.07283">
        <ele>669.4</ele>
        <time>2016-07-31T10:56:46Z</time>
      </trkpt>
      <trkpt lat="42.42219" lon="0.07279">
        <ele>669.9</ele>
        <time>2016-07-31T10:56:48Z</time>
      </trkpt>
      <trkpt lat="42.42217" lon="0.07274">
        <ele>670.6</ele>
        <time>2016-07-31T10:56:50Z</time>
      </trkpt>
      <trkpt lat="42.42216" lon="0.07269">
        <ele>671.4</ele>
        <time>2016-07-31T10:56:52Z</time>
      </trkpt>
      <trkpt lat="42.42214" lon="0.07263">
        <ele>672.3</ele>
        <time>2016-07-31T10:56:54Z</time>
      </trkpt>
      <trkpt lat="42.42213" lon="0.07257">
        <ele>673.2</ele>
        <time>2016-07-31T10:56:56Z</time>
      </trkpt>
      <trkpt lat="42.42211" lon="0.07252">
        <ele>674</ele>
        <time>2016-07-31T10:56:58Z</time>
      </trkpt>
      <trkpt lat="42.42209" lon="0.07246">
        <ele>674.8</ele>
        <time>2016-07-31T10:57:00Z</time>
      </trkpt>
      <trkpt lat="42.42207" lon="0.0724">
        <ele>675.5</ele>
        <time>2016-07-31T10:57:02Z</time>
      </trkpt>
      <trkpt lat="42.42205" lon="0.07234">
        <ele>676.1</ele>
        <time>2016-07-31T10:57:04Z</time>
      </trkpt>
      <trkpt lat="42.42203" lon="0.07228">
        <ele>676.7</ele>
        <time>2016-07-31T10:57:06Z</time>
      </trkpt>
      <trkpt lat="42.422" lon="0.07222">
        <ele>677.2</ele>
        <time>2016-07-31T10:57:08Z</time>
      </trkpt>
      <trkpt lat="42.42197" lon="0.07216">
        <ele>677.7</ele>
        <time>2016-07-31T10:57:10Z</time>
      </trkpt>
      <trkpt lat="42.42193" lon="0.07211">
        <ele>677.9</ele>
        <time>2016-07-31T10:57:12Z</time>
      </trkpt>
      <trkpt lat="42.42189" lon="0.07207">
        <ele>677.9</ele>
        <time>2016-07-31T10:57:14Z</time>
      </trkpt>
      <trkpt lat="42.42187" lon="0.07205">
        <ele>677.8</ele>
        <time>2016-07-31T10:57:15Z</time>
      </trkpt>
      <trkpt lat="42.42184" lon="0.07203">
        <ele>677.7</ele>
        <time>2016-07-31T10:57:16Z</time>
      </trkpt>
      <trkpt lat="42.42181" lon="0.07201">
        <ele>677.6</ele>
        <time>2016-07-31T10:57:17Z</time>
      </trkpt>
      <trkpt lat="42.42178" lon="0.07199">
        <ele>677.4</ele>
        <time>2016-07-31T10:57:18Z</time>
      </trkpt>
      <trkpt lat="42.42175" lon="0.07197">
        <ele>677.2</ele>
        <time>2016-07-31T10:57:19Z</time>
      </trkpt>
      <trkpt lat="42.42173" lon="0.07195">
        <ele>677</ele>
        <time>2016-07-31T10:57:20Z</time>
      </trkpt>
      <trkpt lat="42.4217" lon="0.07193">
        <ele>677</ele>
        <time>2016-07-31T10:57:21Z</time>
      </trkpt>
      <trkpt lat="42.42167" lon="0.0719">
        <ele>676.9</ele>
        <time>2016-07-31T10:57:22Z</time>
      </trkpt>
      <trkpt lat="42.42165" lon="0.07188">
        <ele>676.9</ele>
        <time>2016-07-31T10:57:23Z</time>
      </trkpt>
      <trkpt lat="42.42162" lon="0.07186">
        <ele>676.7</ele>
        <time>2016-07-31T10:57:24Z</time>
      </trkpt>
      <trkpt lat="42.42159" lon="0.07184">
        <ele>676.6</ele>
        <time>2016-07-31T10:57:25Z</time>
      </trkpt>
      <trkpt lat="42.42157" lon="0.07183">
        <ele>676.4</ele>
        <time>2016-07-31T10:57:26Z</time>
      </trkpt>
      <trkpt lat="42.42154" lon="0.07182">
        <ele>676.2</ele>
        <time>2016-07-31T10:57:27Z</time>
      </trkpt>
      <trkpt lat="42.42151" lon="0.0718">
        <ele>675.9</ele>
        <time>2016-07-31T10:57:28Z</time>
      </trkpt>
      <trkpt lat="42.42148" lon="0.07179">
        <ele>675.6</ele>
        <time>2016-07-31T10:57:29Z</time>
      </trkpt>
      <trkpt lat="42.42146" lon="0.07178">
        <ele>675.3</ele>
        <time>2016-07-31T10:57:30Z</time>
      </trkpt>
      <trkpt lat="42.42143" lon="0.07177">
        <ele>675</ele>
        <time>2016-07-31T10:57:31Z</time>
      </trkpt>
      <trkpt lat="42.4214" lon="0.07176">
        <ele>674.7</ele>
        <time>2016-07-31T10:57:32Z</time>
      </trkpt>
      <trkpt lat="42.42137" lon="0.07175">
        <ele>674.5</ele>
        <time>2016-07-31T10:57:33Z</time>
      </trkpt>
      <trkpt lat="42.42134" lon="0.07173">
        <ele>674.3</ele>
        <time>2016-07-31T10:57:34Z</time>
      </trkpt>
      <trkpt lat="42.42131" lon="0.07171">
        <ele>674.2</ele>
        <time>2016-07-31T10:57:35Z</time>
      </trkpt>
      <trkpt lat="42.42128" lon="0.07169">
        <ele>674.1</ele>
        <time>2016-07-31T10:57:36Z</time>
      </trkpt>
      <trkpt lat="42.42125" lon="0.07167">
        <ele>674</ele>
        <time>2016-07-31T10:57:37Z</time>
      </trkpt>
      <trkpt lat="42.42122" lon="0.07164">
        <ele>674.3</ele>
        <time>2016-07-31T10:57:38Z</time>
      </trkpt>
      <trkpt lat="42.4212" lon="0.07161">
        <ele>674.7</ele>
        <time>2016-07-31T10:57:39Z</time>
      </trkpt>
      <trkpt lat="42.42117" lon="0.07157">
        <ele>675.2</ele>
        <time>2016-07-31T10:57:40Z</time>
      </trkpt>
      <trkpt lat="42.42115" lon="0.07153">
        <ele>675.7</ele>
        <time>2016-07-31T10:57:41Z</time>
      </trkpt>
      <trkpt lat="42.42114" lon="0.07149">
        <ele>676.2</ele>
        <time>2016-07-31T10:57:42Z</time>
      </trkpt>
      <trkpt lat="42.42113" lon="0.07146">
        <ele>676.8</ele>
        <time>2016-07-31T10:57:43Z</time>
      </trkpt>
      <trkpt lat="42.42114" lon="0.07142">
        <ele>677.4</ele>
        <time>2016-07-31T10:57:44Z</time>
      </trkpt>
      <trkpt lat="42.42115" lon="0.07138">
        <ele>678.1</ele>
        <time>2016-07-31T10:57:45Z</time>
      </trkpt>
      <trkpt lat="42.42116" lon="0.07135">
        <ele>678.8</ele>
        <time>2016-07-31T10:57:46Z</time>
      </trkpt>
      <trkpt lat="42.42118" lon="0.07131">
        <ele>679.5</ele>
        <time>2016-07-31T10:57:47Z</time>
      </trkpt>
      <trkpt lat="42.4212" lon="0.07128">
        <ele>680.1</ele>
        <time>2016-07-31T10:57:48Z</time>
      </trkpt>
      <trkpt lat="42.42122" lon="0.07121">
        <ele>681.3</ele>
        <time>2016-07-31T10:57:50Z</time>
      </trkpt>
      <trkpt lat="42.42124" lon="0.07115">
        <ele>682.5</ele>
        <time>2016-07-31T10:57:52Z</time>
      </trkpt>
      <trkpt lat="42.42126" lon="0.07109">
        <ele>683.5</ele>
        <time>2016-07-31T10:57:54Z</time>
      </trkpt>
      <trkpt lat="42.42128" lon="0.07104">
        <ele>684.7</ele>
        <time>2016-07-31T10:57:56Z</time>
      </trkpt>
      <trkpt lat="42.42129" lon="0.07099">
        <ele>685.7</ele>
        <time>2016-07-31T10:57:58Z</time>
      </trkpt>
      <trkpt lat="42.42131" lon="0.07094">
        <ele>686.7</ele>
        <time>2016-07-31T10:58:00Z</time>
      </trkpt>
      <trkpt lat="42.42132" lon="0.07088">
        <ele>687.8</ele>
        <time>2016-07-31T10:58:02Z</time>
      </trkpt>
      <trkpt lat="42.42133" lon="0.07082">
        <ele>688.9</ele>
        <time>2016-07-31T10:58:04Z</time>
      </trkpt>
      <trkpt lat="42.42135" lon="0.07076">
        <ele>690</ele>
        <time>2016-07-31T10:58:06Z</time>
      </trkpt>
      <trkpt lat="42.42136" lon="0.07071">
        <ele>691</ele>
        <time>2016-07-31T10:58:08Z</time>
      </trkpt>
      <trkpt lat="42.42136" lon="0.07066">
        <ele>691.8</ele>
        <time>2016-07-31T10:58:10Z</time>
      </trkpt>
      <trkpt lat="42.42135" lon="0.07063">
        <ele>692.1</ele>
        <time>2016-07-31T10:58:12Z</time>
      </trkpt>
      <trkpt lat="42.42132" lon="0.07061">
        <ele>692</ele>
        <time>2016-07-31T10:58:14Z</time>
      </trkpt>
      <trkpt lat="42.42128" lon="0.07059">
        <ele>691.8</ele>
        <time>2016-07-31T10:58:16Z</time>
      </trkpt>
      <trkpt lat="42.42125" lon="0.07057">
        <ele>691.7</ele>
        <time>2016-07-31T10:58:19Z</time>
      </trkpt>
      <trkpt lat="42.42121" lon="0.07055">
        <ele>691.6</ele>
        <time>2016-07-31T10:58:22Z</time>
      </trkpt>
      <trkpt lat="42.42118" lon="0.07052">
        <ele>691.6</ele>
        <time>2016-07-31T10:58:25Z</time>
      </trkpt>
      <trkpt lat="42.42115" lon="0.07049">
        <ele>691.9</ele>
        <time>2016-07-31T10:58:27Z</time>
      </trkpt>
      <trkpt lat="42.42113" lon="0.07045">
        <ele>692.2</ele>
        <time>2016-07-31T10:58:29Z</time>
      </trkpt>
      <trkpt lat="42.42111" lon="0.07041">
        <ele>692.6</ele>
        <time>2016-07-31T10:58:31Z</time>
      </trkpt>
      <trkpt lat="42.42108" lon="0.07037">
        <ele>692.9</ele>
        <time>2016-07-31T10:58:33Z</time>
      </trkpt>
      <trkpt lat="42.42106" lon="0.07034">
        <ele>693.4</ele>
        <time>2016-07-31T10:58:35Z</time>
      </trkpt>
      <trkpt lat="42.42103" lon="0.0703">
        <ele>693.8</ele>
        <time>2016-07-31T10:58:37Z</time>
      </trkpt>
      <trkpt lat="42.42101" lon="0.07026">
        <ele>694.2</ele>
        <time>2016-07-31T10:58:39Z</time>
      </trkpt>
      <trkpt lat="42.42099" lon="0.07022">
        <ele>694.8</ele>
        <time>2016-07-31T10:58:41Z</time>
      </trkpt>
      <trkpt lat="42.42097" lon="0.07017">
        <ele>695.4</ele>
        <time>2016-07-31T10:58:43Z</time>
      </trkpt>
      <trkpt lat="42.42095" lon="0.07013">
        <ele>695.9</ele>
        <time>2016-07-31T10:58:45Z</time>
      </trkpt>
      <trkpt lat="42.42093" lon="0.07008">
        <ele>696.5</ele>
        <time>2016-07-31T10:58:47Z</time>
      </trkpt>
      <trkpt lat="42.42091" lon="0.07003">
        <ele>697.1</ele>
        <time>2016-07-31T10:58:49Z</time>
      </trkpt>
      <trkpt lat="42.42088" lon="0.06999">
        <ele>697.7</ele>
        <time>2016-07-31T10:58:51Z</time>
      </trkpt>
      <trkpt lat="42.42086" lon="0.06994">
        <ele>698.2</ele>
        <time>2016-07-31T10:58:53Z</time>
      </trkpt>
      <trkpt lat="42.42083" lon="0.06989">
        <ele>698.7</ele>
        <time>2016-07-31T10:58:55Z</time>
      </trkpt>
      <trkpt lat="42.42081" lon="0.06983">
        <ele>699.3</ele>
        <time>2016-07-31T10:58:57Z</time>
      </trkpt>
      <trkpt lat="42.42078" lon="0.06979">
        <ele>699.7</ele>
        <time>2016-07-31T10:58:59Z</time>
      </trkpt>
      <trkpt lat="42.42075" lon="0.06975">
        <ele>700</ele>
        <time>2016-07-31T10:59:01Z</time>
      </trkpt>
      <trkpt lat="42.42072" lon="0.0697">
        <ele>700.3</ele>
        <time>2016-07-31T10:59:03Z</time>
      </trkpt>
      <trkpt lat="42.42068" lon="0.06966">
        <ele>700.5</ele>
        <time>2016-07-31T10:59:05Z</time>
      </trkpt>
      <trkpt lat="42.42064" lon="0.06962">
        <ele>700.7</ele>
        <time>2016-07-31T10:59:07Z</time>
      </trkpt>
      <trkpt lat="42.42061" lon="0.06957">
        <ele>701.2</ele>
        <time>2016-07-31T10:59:09Z</time>
      </trkpt>
      <trkpt lat="42.42058" lon="0.06951">
        <ele>702.3</ele>
        <time>2016-07-31T10:59:11Z</time>
      </trkpt>
      <trkpt lat="42.42055" lon="0.06945">
        <ele>703.3</ele>
        <time>2016-07-31T10:59:13Z</time>
      </trkpt>
      <trkpt lat="42.42052" lon="0.0694">
        <ele>704.2</ele>
        <time>2016-07-31T10:59:15Z</time>
      </trkpt>
      <trkpt lat="42.42049" lon="0.06937">
        <ele>704.4</ele>
        <time>2016-07-31T10:59:16Z</time>
      </trkpt>
      <trkpt lat="42.42047" lon="0.06935">
        <ele>704.7</ele>
        <time>2016-07-31T10:59:17Z</time>
      </trkpt>
      <trkpt lat="42.42044" lon="0.06932">
        <ele>704.9</ele>
        <time>2016-07-31T10:59:18Z</time>
      </trkpt>
      <trkpt lat="42.42041" lon="0.0693">
        <ele>705.1</ele>
        <time>2016-07-31T10:59:19Z</time>
      </trkpt>
      <trkpt lat="42.42038" lon="0.06927">
        <ele>705.5</ele>
        <time>2016-07-31T10:59:20Z</time>
      </trkpt>
      <trkpt lat="42.42035" lon="0.06925">
        <ele>705.8</ele>
        <time>2016-07-31T10:59:21Z</time>
      </trkpt>
      <trkpt lat="42.42032" lon="0.06923">
        <ele>706.1</ele>
        <time>2016-07-31T10:59:22Z</time>
      </trkpt>
      <trkpt lat="42.42029" lon="0.06921">
        <ele>706.2</ele>
        <time>2016-07-31T10:59:23Z</time>
      </trkpt>
      <trkpt lat="42.42027" lon="0.0692">
        <ele>706.2</ele>
        <time>2016-07-31T10:59:24Z</time>
      </trkpt>
      <trkpt lat="42.42022" lon="0.06919">
        <ele>706.1</ele>
        <time>2016-07-31T10:59:26Z</time>
      </trkpt>
      <trkpt lat="42.42017" lon="0.06917">
        <ele>706.2</ele>
        <time>2016-07-31T10:59:28Z</time>
      </trkpt>
      <trkpt lat="42.42013" lon="0.06915">
        <ele>706.2</ele>
        <time>2016-07-31T10:59:30Z</time>
      </trkpt>
      <trkpt lat="42.42009" lon="0.06912">
        <ele>706.4</ele>
        <time>2016-07-31T10:59:32Z</time>
      </trkpt>
      <trkpt lat="42.42006" lon="0.06908">
        <ele>707</ele>
        <time>2016-07-31T10:59:34Z</time>
      </trkpt>
      <trkpt lat="42.42003" lon="0.06903">
        <ele>707.6</ele>
        <time>2016-07-31T10:59:36Z</time>
      </trkpt>
      <trkpt lat="42.42" lon="0.069">
        <ele>708</ele>
        <time>2016-07-31T10:59:38Z</time>
      </trkpt>
      <trkpt lat="42.41997" lon="0.06897">
        <ele>708.2</ele>
        <time>2016-07-31T10:59:40Z</time>
      </trkpt>
      <trkpt lat="42.41994" lon="0.06893">
        <ele>708.5</ele>
        <time>2016-07-31T10:59:42Z</time>
      </trkpt>
      <trkpt lat="42.41991" lon="0.0689">
        <ele>708.8</ele>
        <time>2016-07-31T10:59:44Z</time>
      </trkpt>
      <trkpt lat="42.41988" lon="0.06887">
        <ele>709.1</ele>
        <time>2016-07-31T10:59:46Z</time>
      </trkpt>
      <trkpt lat="42.41986" lon="0.06883">
        <ele>709.4</ele>
        <time>2016-07-31T10:59:48Z</time>
      </trkpt>
      <trkpt lat="42.41983" lon="0.0688">
        <ele>709.8</ele>
        <time>2016-07-31T10:59:50Z</time>
      </trkpt>
      <trkpt lat="42.41981" lon="0.06876">
        <ele>710.1</ele>
        <time>2016-07-31T10:59:52Z</time>
      </trkpt>
      <trkpt lat="42.4198" lon="0.06873">
        <ele>710.6</ele>
        <time>2016-07-31T10:59:54Z</time>
      </trkpt>
      <trkpt lat="42.41978" lon="0.06869">
        <ele>711.1</ele>
        <time>2016-07-31T10:59:56Z</time>
      </trkpt>
      <trkpt lat="42.41976" lon="0.06866">
        <ele>711.6</ele>
        <time>2016-07-31T10:59:58Z</time>
      </trkpt>
      <trkpt lat="42.41975" lon="0.06862">
        <ele>712.2</ele>
        <time>2016-07-31T11:00:00Z</time>
      </trkpt>
      <trkpt lat="42.41973" lon="0.06857">
        <ele>713.1</ele>
        <time>2016-07-31T11:00:03Z</time>
      </trkpt>
      <trkpt lat="42.41972" lon="0.06853">
        <ele>713.8</ele>
        <time>2016-07-31T11:00:05Z</time>
      </trkpt>
      <trkpt lat="42.41971" lon="0.06849">
        <ele>714.5</ele>
        <time>2016-07-31T11:00:07Z</time>
      </trkpt>
      <trkpt lat="42.4197" lon="0.06846">
        <ele>715.2</ele>
        <time>2016-07-31T11:00:09Z</time>
      </trkpt>
      <trkpt lat="42.41969" lon="0.06842">
        <ele>715.7</ele>
        <time>2016-07-31T11:00:11Z</time>
      </trkpt>
      <trkpt lat="42.41968" lon="0.06838">
        <ele>716.4</ele>
        <time>2016-07-31T11:00:13Z</time>
      </trkpt>
      <trkpt lat="42.41966" lon="0.06834">
        <ele>717.1</ele>
        <time>2016-07-31T11:00:15Z</time>
      </trkpt>
      <trkpt lat="42.41965" lon="0.0683">
        <ele>717.7</ele>
        <time>2016-07-31T11:00:17Z</time>
      </trkpt>
      <trkpt lat="42.41964" lon="0.06826">
        <ele>718.4</ele>
        <time>2016-07-31T11:00:19Z</time>
      </trkpt>
      <trkpt lat="42.41963" lon="0.06823">
        <ele>719.1</ele>
        <time>2016-07-31T11:00:21Z</time>
      </trkpt>
      <trkpt lat="42.41962" lon="0.06819">
        <ele>719.6</ele>
        <time>2016-07-31T11:00:23Z</time>
      </trkpt>
      <trkpt lat="42.4196" lon="0.06815">
        <ele>720.2</ele>
        <time>2016-07-31T11:00:25Z</time>
      </trkpt>
      <trkpt lat="42.41959" lon="0.06811">
        <ele>720.9</ele>
        <time>2016-07-31T11:00:27Z</time>
      </trkpt>
      <trkpt lat="42.41957" lon="0.06806">
        <ele>721.8</ele>
        <time>2016-07-31T11:00:29Z</time>
      </trkpt>
      <trkpt lat="42.41957" lon="0.06802">
        <ele>722.7</ele>
        <time>2016-07-31T11:00:31Z</time>
      </trkpt>
      <trkpt lat="42.41956" lon="0.06797">
        <ele>723.7</ele>
        <time>2016-07-31T11:00:33Z</time>
      </trkpt>
      <trkpt lat="42.41956" lon="0.06792">
        <ele>724.7</ele>
        <time>2016-07-31T11:00:35Z</time>
      </trkpt>
      <trkpt lat="42.41955" lon="0.06788">
        <ele>725.9</ele>
        <time>2016-07-31T11:00:37Z</time>
      </trkpt>
      <trkpt lat="42.41954" lon="0.06783">
        <ele>727.3</ele>
        <time>2016-07-31T11:00:39Z</time>
      </trkpt>
      <trkpt lat="42.41952" lon="0.06777">
        <ele>728.6</ele>
        <time>2016-07-31T11:00:41Z</time>
      </trkpt>
      <trkpt lat="42.41948" lon="0.06772">
        <ele>729.9</ele>
        <time>2016-07-31T11:00:43Z</time>
      </trkpt>
      <trkpt lat="42.41944" lon="0.0677">
        <ele>730.1</ele>
        <time>2016-07-31T11:00:45Z</time>
      </trkpt>
      <trkpt lat="42.41939" lon="0.06771">
        <ele>729.7</ele>
        <time>2016-07-31T11:00:47Z</time>
      </trkpt>
      <trkpt lat="42.41934" lon="0.0677">
        <ele>729.4</ele>
        <time>2016-07-31T11:00:49Z</time>
      </trkpt>
      <trkpt lat="42.4193" lon="0.06771">
        <ele>728.9</ele>
        <time>2016-07-31T11:00:51Z</time>
      </trkpt>
      <trkpt lat="42.41926" lon="0.06772">
        <ele>728.5</ele>
        <time>2016-07-31T11:00:53Z</time>
      </trkpt>
      <trkpt lat="42.41922" lon="0.06772">
        <ele>728.2</ele>
        <time>2016-07-31T11:00:55Z</time>
      </trkpt>
      <trkpt lat="42.41919" lon="0.06771">
        <ele>728</ele>
        <time>2016-07-31T11:00:57Z</time>
      </trkpt>
      <trkpt lat="42.41915" lon="0.0677">
        <ele>728</ele>
        <time>2016-07-31T11:00:59Z</time>
      </trkpt>
      <trkpt lat="42.41912" lon="0.0677">
        <ele>728</ele>
        <time>2016-07-31T11:01:01Z</time>
      </trkpt>
      <trkpt lat="42.41908" lon="0.06768">
        <ele>728.3</ele>
        <time>2016-07-31T11:01:03Z</time>
      </trkpt>
      <trkpt lat="42.41904" lon="0.06765">
        <ele>728.8</ele>
        <time>2016-07-31T11:01:05Z</time>
      </trkpt>
      <trkpt lat="42.419" lon="0.06762">
        <ele>729.4</ele>
        <time>2016-07-31T11:01:07Z</time>
      </trkpt>
      <trkpt lat="42.41897" lon="0.0676">
        <ele>729.7</ele>
        <time>2016-07-31T11:01:08Z</time>
      </trkpt>
      <trkpt lat="42.41895" lon="0.06758">
        <ele>730.1</ele>
        <time>2016-07-31T11:01:09Z</time>
      </trkpt>
      <trkpt lat="42.41892" lon="0.06756">
        <ele>730.4</ele>
        <time>2016-07-31T11:01:10Z</time>
      </trkpt>
      <trkpt lat="42.41888" lon="0.06753">
        <ele>731.1</ele>
        <time>2016-07-31T11:01:12Z</time>
      </trkpt>
      <trkpt lat="42.41883" lon="0.0675">
        <ele>731.7</ele>
        <time>2016-07-31T11:01:14Z</time>
      </trkpt>
      <trkpt lat="42.41881" lon="0.06748">
        <ele>731.9</ele>
        <time>2016-07-31T11:01:15Z</time>
      </trkpt>
      <trkpt lat="42.41878" lon="0.06747">
        <ele>732.2</ele>
        <time>2016-07-31T11:01:16Z</time>
      </trkpt>
      <trkpt lat="42.41876" lon="0.06745">
        <ele>732.6</ele>
        <time>2016-07-31T11:01:17Z</time>
      </trkpt>
      <trkpt lat="42.41872" lon="0.0674">
        <ele>734</ele>
        <time>2016-07-31T11:01:19Z</time>
      </trkpt>
      <trkpt lat="42.41868" lon="0.06736">
        <ele>735.2</ele>
        <time>2016-07-31T11:01:21Z</time>
      </trkpt>
      <trkpt lat="42.41866" lon="0.06734">
        <ele>735.8</ele>
        <time>2016-07-31T11:01:22Z</time>
      </trkpt>
      <trkpt lat="42.41864" lon="0.06732">
        <ele>736.4</ele>
        <time>2016-07-31T11:01:23Z</time>
      </trkpt>
      <trkpt lat="42.4186" lon="0.06727">
        <ele>737.7</ele>
        <time>2016-07-31T11:01:25Z</time>
      </trkpt>
      <trkpt lat="42.41857" lon="0.06723">
        <ele>738.9</ele>
        <time>2016-07-31T11:01:27Z</time>
      </trkpt>
      <trkpt lat="42.41853" lon="0.06719">
        <ele>739.9</ele>
        <time>2016-07-31T11:01:29Z</time>
      </trkpt>
      <trkpt lat="42.4185" lon="0.06714">
        <ele>740.9</ele>
        <time>2016-07-31T11:01:31Z</time>
      </trkpt>
      <trkpt lat="42.41847" lon="0.0671">
        <ele>742</ele>
        <time>2016-07-31T11:01:33Z</time>
      </trkpt>
      <trkpt lat="42.41844" lon="0.06705">
        <ele>743.2</ele>
        <time>2016-07-31T11:01:35Z</time>
      </trkpt>
      <trkpt lat="42.41842" lon="0.06702">
        <ele>744.2</ele>
        <time>2016-07-31T11:01:37Z</time>
      </trkpt>
      <trkpt lat="42.41839" lon="0.06698">
        <ele>745.2</ele>
        <time>2016-07-31T11:01:39Z</time>
      </trkpt>
      <trkpt lat="42.41835" lon="0.06696">
        <ele>745.8</ele>
        <time>2016-07-31T11:01:41Z</time>
      </trkpt>
      <trkpt lat="42.4183" lon="0.06694">
        <ele>746.2</ele>
        <time>2016-07-31T11:01:43Z</time>
      </trkpt>
      <trkpt lat="42.41826" lon="0.06692">
        <ele>746.6</ele>
        <time>2016-07-31T11:01:45Z</time>
      </trkpt>
      <trkpt lat="42.41821" lon="0.06691">
        <ele>746.7</ele>
        <time>2016-07-31T11:01:47Z</time>
      </trkpt>
      <trkpt lat="42.41816" lon="0.06691">
        <ele>746.6</ele>
        <time>2016-07-31T11:01:49Z</time>
      </trkpt>
      <trkpt lat="42.41811" lon="0.0669">
        <ele>746.8</ele>
        <time>2016-07-31T11:01:51Z</time>
      </trkpt>
      <trkpt lat="42.41807" lon="0.06688">
        <ele>747.4</ele>
        <time>2016-07-31T11:01:53Z</time>
      </trkpt>
      <trkpt lat="42.41804" lon="0.06686">
        <ele>747.9</ele>
        <time>2016-07-31T11:01:55Z</time>
      </trkpt>
      <trkpt lat="42.41801" lon="0.06684">
        <ele>748.3</ele>
        <time>2016-07-31T11:01:57Z</time>
      </trkpt>
      <trkpt lat="42.41796" lon="0.06683">
        <ele>748.4</ele>
        <time>2016-07-31T11:01:59Z</time>
      </trkpt>
      <trkpt lat="42.41792" lon="0.06683">
        <ele>748.2</ele>
        <time>2016-07-31T11:02:01Z</time>
      </trkpt>
      <trkpt lat="42.41789" lon="0.06682">
        <ele>748.7</ele>
        <time>2016-07-31T11:02:04Z</time>
      </trkpt>
      <trkpt lat="42.41787" lon="0.06678">
        <ele>749.9</ele>
        <time>2016-07-31T11:02:06Z</time>
      </trkpt>
      <trkpt lat="42.41786" lon="0.06675">
        <ele>751</ele>
        <time>2016-07-31T11:02:09Z</time>
      </trkpt>
      <trkpt lat="42.41784" lon="0.06672">
        <ele>751.8</ele>
        <time>2016-07-31T11:02:11Z</time>
      </trkpt>
      <trkpt lat="42.41781" lon="0.0667">
        <ele>752.5</ele>
        <time>2016-07-31T11:02:13Z</time>
      </trkpt>
      <trkpt lat="42.41778" lon="0.06669">
        <ele>752.9</ele>
        <time>2016-07-31T11:02:15Z</time>
      </trkpt>
      <trkpt lat="42.41775" lon="0.06667">
        <ele>753.4</ele>
        <time>2016-07-31T11:02:17Z</time>
      </trkpt>
      <trkpt lat="42.41772" lon="0.06664">
        <ele>754.2</ele>
        <time>2016-07-31T11:02:19Z</time>
      </trkpt>
      <trkpt lat="42.4177" lon="0.06662">
        <ele>754.8</ele>
        <time>2016-07-31T11:02:21Z</time>
      </trkpt>
      <trkpt lat="42.41767" lon="0.0666">
        <ele>755.3</ele>
        <time>2016-07-31T11:02:23Z</time>
      </trkpt>
      <trkpt lat="42.41765" lon="0.06657">
        <ele>756.1</ele>
        <time>2016-07-31T11:02:25Z</time>
      </trkpt>
      <trkpt lat="42.41763" lon="0.06654">
        <ele>756.9</ele>
        <time>2016-07-31T11:02:27Z</time>
      </trkpt>
      <trkpt lat="42.41761" lon="0.06651">
        <ele>757.5</ele>
        <time>2016-07-31T11:02:29Z</time>
      </trkpt>
      <trkpt lat="42.41759" lon="0.06649">
        <ele>757.9</ele>
        <time>2016-07-31T11:02:31Z</time>
      </trkpt>
      <trkpt lat="42.41756" lon="0.06648">
        <ele>758.2</ele>
        <time>2016-07-31T11:02:33Z</time>
      </trkpt>
      <trkpt lat="42.41753" lon="0.06645">
        <ele>758.8</ele>
        <time>2016-07-31T11:02:35Z</time>
      </trkpt>
      <trkpt lat="42.4175" lon="0.06645">
        <ele>758.9</ele>
        <time>2016-07-31T11:02:38Z</time>
      </trkpt>
      <trkpt lat="42.41748" lon="0.06646">
        <ele>758.5</ele>
        <time>2016-07-31T11:02:41Z</time>
      </trkpt>
      <trkpt lat="42.41745" lon="0.06648">
        <ele>758.2</ele>
        <time>2016-07-31T11:02:43Z</time>
      </trkpt>
      <trkpt lat="42.41742" lon="0.06649">
        <ele>758</ele>
        <time>2016-07-31T11:02:45Z</time>
      </trkpt>
      <trkpt lat="42.41739" lon="0.06649">
        <ele>757.9</ele>
        <time>2016-07-31T11:02:47Z</time>
      </trkpt>
      <trkpt lat="42.41736" lon="0.06651">
        <ele>757.6</ele>
        <time>2016-07-31T11:02:50Z</time>
      </trkpt>
      <trkpt lat="42.41732" lon="0.0665">
        <ele>757.7</ele>
        <time>2016-07-31T11:02:53Z</time>
      </trkpt>
      <trkpt lat="42.41729" lon="0.0665">
        <ele>757.7</ele>
        <time>2016-07-31T11:02:55Z</time>
      </trkpt>
      <trkpt lat="42.41726" lon="0.0665">
        <ele>757.8</ele>
        <time>2016-07-31T11:02:57Z</time>
      </trkpt>
      <trkpt lat="42.41723" lon="0.06649">
        <ele>757.9</ele>
        <time>2016-07-31T11:02:59Z</time>
      </trkpt>
      <trkpt lat="42.41718" lon="0.06649">
        <ele>757.8</ele>
        <time>2016-07-31T11:03:01Z</time>
      </trkpt>
      <trkpt lat="42.41714" lon="0.0665">
        <ele>757.8</ele>
        <time>2016-07-31T11:03:03Z</time>
      </trkpt>
      <trkpt lat="42.41709" lon="0.0665">
        <ele>757.7</ele>
        <time>2016-07-31T11:03:05Z</time>
      </trkpt>
      <trkpt lat="42.41704" lon="0.06651">
        <ele>756.9</ele>
        <time>2016-07-31T11:03:07Z</time>
      </trkpt>
      <trkpt lat="42.41699" lon="0.06653">
        <ele>756.1</ele>
        <time>2016-07-31T11:03:09Z</time>
      </trkpt>
      <trkpt lat="42.41696" lon="0.06654">
        <ele>755.5</ele>
        <time>2016-07-31T11:03:10Z</time>
      </trkpt>
      <trkpt lat="42.41692" lon="0.06654">
        <ele>755</ele>
        <time>2016-07-31T11:03:12Z</time>
      </trkpt>
      <trkpt lat="42.4169" lon="0.06652">
        <ele>754.9</ele>
        <time>2016-07-31T11:03:15Z</time>
      </trkpt>
      <trkpt lat="42.41687" lon="0.0665">
        <ele>754.7</ele>
        <time>2016-07-31T11:03:19Z</time>
      </trkpt>
      <trkpt lat="42.41684" lon="0.06651">
        <ele>754.3</ele>
        <time>2016-07-31T11:03:21Z</time>
      </trkpt>
      <trkpt lat="42.41681" lon="0.06651">
        <ele>753.7</ele>
        <time>2016-07-31T11:03:23Z</time>
      </trkpt>
      <trkpt lat="42.41677" lon="0.06651">
        <ele>753.2</ele>
        <time>2016-07-31T11:03:26Z</time>
      </trkpt>
      <trkpt lat="42.41675" lon="0.06652">
        <ele>752.7</ele>
        <time>2016-07-31T11:03:28Z</time>
      </trkpt>
      <trkpt lat="42.41671" lon="0.06652">
        <ele>752.2</ele>
        <time>2016-07-31T11:03:31Z</time>
      </trkpt>
      <trkpt lat="42.41669" lon="0.0665">
        <ele>752.3</ele>
        <time>2016-07-31T11:03:33Z</time>
      </trkpt>
      <trkpt lat="42.41665" lon="0.06647">
        <ele>752.3</ele>
        <time>2016-07-31T11:03:36Z</time>
      </trkpt>
      <trkpt lat="42.41661" lon="0.06645">
        <ele>752.2</ele>
        <time>2016-07-31T11:03:38Z</time>
      </trkpt>
      <trkpt lat="42.41657" lon="0.0664">
        <ele>752.5</ele>
        <time>2016-07-31T11:03:40Z</time>
      </trkpt>
      <trkpt lat="42.41655" lon="0.06637">
        <ele>752.9</ele>
        <time>2016-07-31T11:03:41Z</time>
      </trkpt>
      <trkpt lat="42.41652" lon="0.06632">
        <ele>753.5</ele>
        <time>2016-07-31T11:03:43Z</time>
      </trkpt>
      <trkpt lat="42.4165" lon="0.06629">
        <ele>754</ele>
        <time>2016-07-31T11:03:45Z</time>
      </trkpt>
      <trkpt lat="42.41648" lon="0.06625">
        <ele>754.5</ele>
        <time>2016-07-31T11:03:47Z</time>
      </trkpt>
      <trkpt lat="42.41646" lon="0.06621">
        <ele>755.3</ele>
        <time>2016-07-31T11:03:49Z</time>
      </trkpt>
      <trkpt lat="42.41646" lon="0.06618">
        <ele>756.2</ele>
        <time>2016-07-31T11:03:51Z</time>
      </trkpt>
      <trkpt lat="42.41646" lon="0.06614">
        <ele>757.3</ele>
        <time>2016-07-31T11:03:53Z</time>
      </trkpt>
      <trkpt lat="42.41644" lon="0.0661">
        <ele>757.9</ele>
        <time>2016-07-31T11:03:55Z</time>
      </trkpt>
      <trkpt lat="42.41642" lon="0.06607">
        <ele>758.6</ele>
        <time>2016-07-31T11:03:57Z</time>
      </trkpt>
      <trkpt lat="42.41641" lon="0.06603">
        <ele>759.6</ele>
        <time>2016-07-31T11:03:59Z</time>
      </trkpt>
      <trkpt lat="42.4164" lon="0.06599">
        <ele>760.4</ele>
        <time>2016-07-31T11:04:01Z</time>
      </trkpt>
      <trkpt lat="42.41639" lon="0.06595">
        <ele>761.3</ele>
        <time>2016-07-31T11:04:03Z</time>
      </trkpt>
      <trkpt lat="42.4164" lon="0.06591">
        <ele>762.6</ele>
        <time>2016-07-31T11:04:09Z</time>
      </trkpt>
      <trkpt lat="42.4164" lon="0.06587">
        <ele>763.6</ele>
        <time>2016-07-31T11:04:12Z</time>
      </trkpt>
      <trkpt lat="42.41638" lon="0.06583">
        <ele>764.2</ele>
        <time>2016-07-31T11:04:16Z</time>
      </trkpt>
      <trkpt lat="42.41635" lon="0.06581">
        <ele>764.6</ele>
        <time>2016-07-31T11:04:19Z</time>
      </trkpt>
      <trkpt lat="42.41633" lon="0.06577">
        <ele>765.3</ele>
        <time>2016-07-31T11:04:22Z</time>
      </trkpt>
      <trkpt lat="42.41631" lon="0.06573">
        <ele>765.9</ele>
        <time>2016-07-31T11:04:26Z</time>
      </trkpt>
      <trkpt lat="42.41629" lon="0.0657">
        <ele>766.3</ele>
        <time>2016-07-31T11:04:29Z</time>
      </trkpt>
      <trkpt lat="42.41627" lon="0.06567">
        <ele>766.9</ele>
        <time>2016-07-31T11:04:32Z</time>
      </trkpt>
      <trkpt lat="42.41627" lon="0.06563">
        <ele>767.9</ele>
        <time>2016-07-31T11:04:36Z</time>
      </trkpt>
      <trkpt lat="42.41628" lon="0.06558">
        <ele>769.3</ele>
        <time>2016-07-31T11:04:40Z</time>
      </trkpt>
      <trkpt lat="42.41629" lon="0.06554">
        <ele>770.4</ele>
        <time>2016-07-31T11:04:44Z</time>
      </trkpt>
      <trkpt lat="42.41628" lon="0.06551">
        <ele>771.2</ele>
        <time>2016-07-31T11:04:49Z</time>
      </trkpt>
      <trkpt lat="42.41625" lon="0.06549">
        <ele>771</ele>
        <time>2016-07-31T11:04:56Z</time>
      </trkpt>
      <trkpt lat="42.41622" lon="0.06547">
        <ele>771.2</ele>
        <time>2016-07-31T11:05:01Z</time>
      </trkpt>
      <trkpt lat="42.4162" lon="0.06543">
        <ele>771.9</ele>
        <time>2016-07-31T11:05:04Z</time>
      </trkpt>
      <trkpt lat="42.41619" lon="0.06539">
        <ele>772.4</ele>
        <time>2016-07-31T11:05:06Z</time>
      </trkpt>
      <trkpt lat="42.41619" lon="0.06534">
        <ele>773</ele>
        <time>2016-07-31T11:05:09Z</time>
      </trkpt>
      <trkpt lat="42.41618" lon="0.0653">
        <ele>773.3</ele>
        <time>2016-07-31T11:05:11Z</time>
      </trkpt>
      <trkpt lat="42.41615" lon="0.06526">
        <ele>773.5</ele>
        <time>2016-07-31T11:05:13Z</time>
      </trkpt>
      <trkpt lat="42.41613" lon="0.06523">
        <ele>773.7</ele>
        <time>2016-07-31T11:05:15Z</time>
      </trkpt>
      <trkpt lat="42.41611" lon="0.06519">
        <ele>773.9</ele>
        <time>2016-07-31T11:05:17Z</time>
      </trkpt>
      <trkpt lat="42.41608" lon="0.06515">
        <ele>774.1</ele>
        <time>2016-07-31T11:05:19Z</time>
      </trkpt>
      <trkpt lat="42.41606" lon="0.0651">
        <ele>774.5</ele>
        <time>2016-07-31T11:05:21Z</time>
      </trkpt>
      <trkpt lat="42.41605" lon="0.06507">
        <ele>774.8</ele>
        <time>2016-07-31T11:05:23Z</time>
      </trkpt>
      <trkpt lat="42.41603" lon="0.06504">
        <ele>775.1</ele>
        <time>2016-07-31T11:05:25Z</time>
      </trkpt>
      <trkpt lat="42.416" lon="0.06501">
        <ele>775.1</ele>
        <time>2016-07-31T11:05:28Z</time>
      </trkpt>
      <trkpt lat="42.41597" lon="0.06498">
        <ele>775.1</ele>
        <time>2016-07-31T11:05:30Z</time>
      </trkpt>
      <trkpt lat="42.41595" lon="0.06495">
        <ele>775.3</ele>
        <time>2016-07-31T11:05:32Z</time>
      </trkpt>
      <trkpt lat="42.41593" lon="0.06492">
        <ele>775.6</ele>
        <time>2016-07-31T11:05:34Z</time>
      </trkpt>
      <trkpt lat="42.41591" lon="0.06488">
        <ele>776</ele>
        <time>2016-07-31T11:05:36Z</time>
      </trkpt>
      <trkpt lat="42.41589" lon="0.06485">
        <ele>776.2</ele>
        <time>2016-07-31T11:05:38Z</time>
      </trkpt>
      <trkpt lat="42.41586" lon="0.06482">
        <ele>776.2</ele>
        <time>2016-07-31T11:05:40Z</time>
      </trkpt>
      <trkpt lat="42.41583" lon="0.06479">
        <ele>776.5</ele>
        <time>2016-07-31T11:05:43Z</time>
      </trkpt>
      <trkpt lat="42.4158" lon="0.06476">
        <ele>776.6</ele>
        <time>2016-07-31T11:05:46Z</time>
      </trkpt>
      <trkpt lat="42.41576" lon="0.06473">
        <ele>776.7</ele>
        <time>2016-07-31T11:05:49Z</time>
      </trkpt>
      <trkpt lat="42.41573" lon="0.06471">
        <ele>776.8</ele>
        <time>2016-07-31T11:05:51Z</time>
      </trkpt>
      <trkpt lat="42.41571" lon="0.06468">
        <ele>777.1</ele>
        <time>2016-07-31T11:05:53Z</time>
      </trkpt>
      <trkpt lat="42.41569" lon="0.06465">
        <ele>777.4</ele>
        <time>2016-07-31T11:05:55Z</time>
      </trkpt>
      <trkpt lat="42.41566" lon="0.06462">
        <ele>777.6</ele>
        <time>2016-07-31T11:05:58Z</time>
      </trkpt>
      <trkpt lat="42.41564" lon="0.06459">
        <ele>778.1</ele>
        <time>2016-07-31T11:06:01Z</time>
      </trkpt>
      <trkpt lat="42.41562" lon="0.06455">
        <ele>778</ele>
        <time>2016-07-31T11:06:04Z</time>
      </trkpt>
      <trkpt lat="42.4156" lon="0.06452">
        <ele>777.9</ele>
        <time>2016-07-31T11:06:06Z</time>
      </trkpt>
      <trkpt lat="42.41558" lon="0.06449">
        <ele>777.9</ele>
        <time>2016-07-31T11:06:08Z</time>
      </trkpt>
      <trkpt lat="42.41557" lon="0.06443">
        <ele>778.1</ele>
        <time>2016-07-31T11:06:11Z</time>
      </trkpt>
      <trkpt lat="42.41556" lon="0.06439">
        <ele>778.2</ele>
        <time>2016-07-31T11:06:14Z</time>
      </trkpt>
      <trkpt lat="42.41554" lon="0.06435">
        <ele>778.3</ele>
        <time>2016-07-31T11:06:16Z</time>
      </trkpt>
      <trkpt lat="42.41552" lon="0.06431">
        <ele>778.5</ele>
        <time>2016-07-31T11:06:18Z</time>
      </trkpt>
      <trkpt lat="42.4155" lon="0.06427">
        <ele>778.7</ele>
        <time>2016-07-31T11:06:20Z</time>
      </trkpt>
      <trkpt lat="42.41548" lon="0.06423">
        <ele>778.9</ele>
        <time>2016-07-31T11:06:22Z</time>
      </trkpt>
      <trkpt lat="42.41547" lon="0.06419">
        <ele>779.2</ele>
        <time>2016-07-31T11:06:25Z</time>
      </trkpt>
      <trkpt lat="42.41547" lon="0.06415">
        <ele>779.5</ele>
        <time>2016-07-31T11:06:27Z</time>
      </trkpt>
      <trkpt lat="42.41546" lon="0.0641">
        <ele>779.9</ele>
        <time>2016-07-31T11:06:29Z</time>
      </trkpt>
      <trkpt lat="42.41545" lon="0.06406">
        <ele>780.2</ele>
        <time>2016-07-31T11:06:31Z</time>
      </trkpt>
      <trkpt lat="42.41543" lon="0.06402">
        <ele>780.6</ele>
        <time>2016-07-31T11:06:33Z</time>
      </trkpt>
      <trkpt lat="42.41542" lon="0.06398">
        <ele>781.1</ele>
        <time>2016-07-31T11:06:35Z</time>
      </trkpt>
      <trkpt lat="42.41541" lon="0.06394">
        <ele>781.5</ele>
        <time>2016-07-31T11:06:37Z</time>
      </trkpt>
      <trkpt lat="42.41538" lon="0.06391">
        <ele>781.9</ele>
        <time>2016-07-31T11:06:39Z</time>
      </trkpt>
      <trkpt lat="42.41536" lon="0.06388">
        <ele>782.5</ele>
        <time>2016-07-31T11:06:41Z</time>
      </trkpt>
      <trkpt lat="42.41535" lon="0.06383">
        <ele>783</ele>
        <time>2016-07-31T11:06:43Z</time>
      </trkpt>
      <trkpt lat="42.41533" lon="0.0638">
        <ele>783.6</ele>
        <time>2016-07-31T11:06:45Z</time>
      </trkpt>
      <trkpt lat="42.41531" lon="0.06377">
        <ele>784.2</ele>
        <time>2016-07-31T11:06:47Z</time>
      </trkpt>
      <trkpt lat="42.41533" lon="0.06375">
        <ele>784</ele>
        <time>2016-07-31T11:06:53Z</time>
      </trkpt>
      <trkpt lat="42.41536" lon="0.06377">
        <ele>783.5</ele>
        <time>2016-07-31T11:06:55Z</time>
      </trkpt>
      <trkpt lat="42.41538" lon="0.06378">
        <ele>783.1</ele>
        <time>2016-07-31T11:06:57Z</time>
      </trkpt>
      <trkpt lat="42.41541" lon="0.06381">
        <ele>782.6</ele>
        <time>2016-07-31T11:08:33Z</time>
      </trkpt>
      <trkpt lat="42.41543" lon="0.06384">
        <ele>782.1</ele>
        <time>2016-07-31T11:08:38Z</time>
      </trkpt>
      <trkpt lat="42.41546" lon="0.06385">
        <ele>781.6</ele>
        <time>2016-07-31T11:08:40Z</time>
      </trkpt>
      <trkpt lat="42.41549" lon="0.06388">
        <ele>781.1</ele>
        <time>2016-07-31T11:08:42Z</time>
      </trkpt>
      <trkpt lat="42.41552" lon="0.0639">
        <ele>780.6</ele>
        <time>2016-07-31T11:08:44Z</time>
      </trkpt>
      <trkpt lat="42.41556" lon="0.06392">
        <ele>780.2</ele>
        <time>2016-07-31T11:08:46Z</time>
      </trkpt>
      <trkpt lat="42.41559" lon="0.06395">
        <ele>779.8</ele>
        <time>2016-07-31T11:08:48Z</time>
      </trkpt>
      <trkpt lat="42.41563" lon="0.06397">
        <ele>779.5</ele>
        <time>2016-07-31T11:08:50Z</time>
      </trkpt>
      <trkpt lat="42.41566" lon="0.06399">
        <ele>779.2</ele>
        <time>2016-07-31T11:08:52Z</time>
      </trkpt>
      <trkpt lat="42.4157" lon="0.06399">
        <ele>778.9</ele>
        <time>2016-07-31T11:08:54Z</time>
      </trkpt>
      <trkpt lat="42.41573" lon="0.064">
        <ele>778.7</ele>
        <time>2016-07-31T11:08:56Z</time>
      </trkpt>
      <trkpt lat="42.41576" lon="0.06402">
        <ele>778.5</ele>
        <time>2016-07-31T11:08:58Z</time>
      </trkpt>
      <trkpt lat="42.41579" lon="0.06404">
        <ele>778.3</ele>
        <time>2016-07-31T11:09:00Z</time>
      </trkpt>
      <trkpt lat="42.41582" lon="0.06405">
        <ele>778.2</ele>
        <time>2016-07-31T11:09:02Z</time>
      </trkpt>
      <trkpt lat="42.41585" lon="0.06407">
        <ele>778.1</ele>
        <time>2016-07-31T11:09:04Z</time>
      </trkpt>
      <trkpt lat="42.41588" lon="0.06408">
        <ele>778</ele>
        <time>2016-07-31T11:09:06Z</time>
      </trkpt>
      <trkpt lat="42.41591" lon="0.06408">
        <ele>777.8</ele>
        <time>2016-07-31T11:09:08Z</time>
      </trkpt>
      <trkpt lat="42.41595" lon="0.06409">
        <ele>777.7</ele>
        <time>2016-07-31T11:09:10Z</time>
      </trkpt>
      <trkpt lat="42.41597" lon="0.0641">
        <ele>777.6</ele>
        <time>2016-07-31T11:09:12Z</time>
      </trkpt>
      <trkpt lat="42.416" lon="0.06411">
        <ele>777.6</ele>
        <time>2016-07-31T11:09:14Z</time>
      </trkpt>
      <trkpt lat="42.41603" lon="0.06413">
        <ele>777.7</ele>
        <time>2016-07-31T11:09:16Z</time>
      </trkpt>
      <trkpt lat="42.41606" lon="0.06415">
        <ele>777.7</ele>
        <time>2016-07-31T11:09:18Z</time>
      </trkpt>
      <trkpt lat="42.4161" lon="0.06416">
        <ele>777.8</ele>
        <time>2016-07-31T11:09:20Z</time>
      </trkpt>
      <trkpt lat="42.41613" lon="0.06418">
        <ele>777.9</ele>
        <time>2016-07-31T11:09:22Z</time>
      </trkpt>
      <trkpt lat="42.41617" lon="0.0642">
        <ele>778.1</ele>
        <time>2016-07-31T11:09:24Z</time>
      </trkpt>
      <trkpt lat="42.4162" lon="0.06421">
        <ele>778.2</ele>
        <time>2016-07-31T11:09:26Z</time>
      </trkpt>
      <trkpt lat="42.41623" lon="0.0642">
        <ele>778</ele>
        <time>2016-07-31T11:09:28Z</time>
      </trkpt>
      <trkpt lat="42.41626" lon="0.06419">
        <ele>778</ele>
        <time>2016-07-31T11:09:30Z</time>
      </trkpt>
      <trkpt lat="42.4163" lon="0.06419">
        <ele>778.4</ele>
        <time>2016-07-31T11:09:32Z</time>
      </trkpt>
      <trkpt lat="42.41634" lon="0.06419">
        <ele>778.9</ele>
        <time>2016-07-31T11:09:34Z</time>
      </trkpt>
      <trkpt lat="42.41637" lon="0.06421">
        <ele>779.6</ele>
        <time>2016-07-31T11:09:36Z</time>
      </trkpt>
      <trkpt lat="42.41641" lon="0.06423">
        <ele>780.5</ele>
        <time>2016-07-31T11:09:38Z</time>
      </trkpt>
      <trkpt lat="42.41644" lon="0.06426">
        <ele>781.3</ele>
        <time>2016-07-31T11:09:40Z</time>
      </trkpt>
      <trkpt lat="42.41647" lon="0.06428">
        <ele>782</ele>
        <time>2016-07-31T11:09:42Z</time>
      </trkpt>
      <trkpt lat="42.4165" lon="0.06426">
        <ele>782.1</ele>
        <time>2016-07-31T11:09:44Z</time>
      </trkpt>
      <trkpt lat="42.41652" lon="0.06422">
        <ele>781.7</ele>
        <time>2016-07-31T11:09:46Z</time>
      </trkpt>
      <trkpt lat="42.41655" lon="0.06419">
        <ele>781.6</ele>
        <time>2016-07-31T11:09:48Z</time>
      </trkpt>
      <trkpt lat="42.41659" lon="0.06421">
        <ele>782.2</ele>
        <time>2016-07-31T11:09:50Z</time>
      </trkpt>
      <trkpt lat="42.41662" lon="0.06424">
        <ele>783.1</ele>
        <time>2016-07-31T11:09:52Z</time>
      </trkpt>
      <trkpt lat="42.41665" lon="0.06426">
        <ele>783.9</ele>
        <time>2016-07-31T11:09:54Z</time>
      </trkpt>
      <trkpt lat="42.41669" lon="0.06426">
        <ele>784.3</ele>
        <time>2016-07-31T11:09:56Z</time>
      </trkpt>
      <trkpt lat="42.41673" lon="0.06426">
        <ele>784.7</ele>
        <time>2016-07-31T11:09:58Z</time>
      </trkpt>
      <trkpt lat="42.41676" lon="0.06425">
        <ele>785.1</ele>
        <time>2016-07-31T11:10:00Z</time>
      </trkpt>
      <trkpt lat="42.41679" lon="0.06424">
        <ele>785.3</ele>
        <time>2016-07-31T11:10:02Z</time>
      </trkpt>
      <trkpt lat="42.41683" lon="0.06425">
        <ele>785.8</ele>
        <time>2016-07-31T11:10:04Z</time>
      </trkpt>
      <trkpt lat="42.41686" lon="0.06427">
        <ele>786.6</ele>
        <time>2016-07-31T11:10:06Z</time>
      </trkpt>
      <trkpt lat="42.41689" lon="0.06429">
        <ele>787.3</ele>
        <time>2016-07-31T11:10:08Z</time>
      </trkpt>
      <trkpt lat="42.41692" lon="0.0643">
        <ele>787.9</ele>
        <time>2016-07-31T11:10:10Z</time>
      </trkpt>
      <trkpt lat="42.41696" lon="0.0643">
        <ele>788.4</ele>
        <time>2016-07-31T11:10:12Z</time>
      </trkpt>
      <trkpt lat="42.41699" lon="0.06431">
        <ele>788.9</ele>
        <time>2016-07-31T11:10:14Z</time>
      </trkpt>
      <trkpt lat="42.41703" lon="0.06432">
        <ele>789.6</ele>
        <time>2016-07-31T11:10:16Z</time>
      </trkpt>
      <trkpt lat="42.41706" lon="0.06434">
        <ele>790.3</ele>
        <time>2016-07-31T11:10:18Z</time>
      </trkpt>
      <trkpt lat="42.4171" lon="0.06434">
        <ele>790.8</ele>
        <time>2016-07-31T11:10:20Z</time>
      </trkpt>
      <trkpt lat="42.41714" lon="0.06434">
        <ele>791.2</ele>
        <time>2016-07-31T11:10:22Z</time>
      </trkpt>
      <trkpt lat="42.41718" lon="0.06434">
        <ele>791.7</ele>
        <time>2016-07-31T11:10:24Z</time>
      </trkpt>
      <trkpt lat="42.41721" lon="0.06436">
        <ele>792.4</ele>
        <time>2016-07-31T11:10:26Z</time>
      </trkpt>
      <trkpt lat="42.41725" lon="0.06437">
        <ele>792.9</ele>
        <time>2016-07-31T11:10:28Z</time>
      </trkpt>
      <trkpt lat="42.41727" lon="0.06436">
        <ele>793</ele>
        <time>2016-07-31T11:10:33Z</time>
      </trkpt>
      <trkpt lat="42.4173" lon="0.06433">
        <ele>792.8</ele>
        <time>2016-07-31T11:10:38Z</time>
      </trkpt>
      <trkpt lat="42.41732" lon="0.06431">
        <ele>792.8</ele>
        <time>2016-07-31T11:10:41Z</time>
      </trkpt>
      <trkpt lat="42.41735" lon="0.06429">
        <ele>792.7</ele>
        <time>2016-07-31T11:10:44Z</time>
      </trkpt>
      <trkpt lat="42.41738" lon="0.06426">
        <ele>792.5</ele>
        <time>2016-07-31T11:10:47Z</time>
      </trkpt>
      <trkpt lat="42.41741" lon="0.06426">
        <ele>792.8</ele>
        <time>2016-07-31T11:10:55Z</time>
      </trkpt>
      <trkpt lat="42.41744" lon="0.06423">
        <ele>792.7</ele>
        <time>2016-07-31T11:10:57Z</time>
      </trkpt>
      <trkpt lat="42.41748" lon="0.06421">
        <ele>792.8</ele>
        <time>2016-07-31T11:10:59Z</time>
      </trkpt>
      <trkpt lat="42.41753" lon="0.06419">
        <ele>793.1</ele>
        <time>2016-07-31T11:11:01Z</time>
      </trkpt>
      <trkpt lat="42.41756" lon="0.06418">
        <ele>793.2</ele>
        <time>2016-07-31T11:11:02Z</time>
      </trkpt>
      <trkpt lat="42.41759" lon="0.06416">
        <ele>793.2</ele>
        <time>2016-07-31T11:11:03Z</time>
      </trkpt>
      <trkpt lat="42.41761" lon="0.06414">
        <ele>793.1</ele>
        <time>2016-07-31T11:11:04Z</time>
      </trkpt>
      <trkpt lat="42.41764" lon="0.06411">
        <ele>792.9</ele>
        <time>2016-07-31T11:11:05Z</time>
      </trkpt>
      <trkpt lat="42.41768" lon="0.06409">
        <ele>792.9</ele>
        <time>2016-07-31T11:11:06Z</time>
      </trkpt>
      <trkpt lat="42.41772" lon="0.06408">
        <ele>793.2</ele>
        <time>2016-07-31T11:11:07Z</time>
      </trkpt>
      <trkpt lat="42.41777" lon="0.06407">
        <ele>793.6</ele>
        <time>2016-07-31T11:11:08Z</time>
      </trkpt>
      <trkpt lat="42.41781" lon="0.06406">
        <ele>794.1</ele>
        <time>2016-07-31T11:11:09Z</time>
      </trkpt>
      <trkpt lat="42.41786" lon="0.06406">
        <ele>794.6</ele>
        <time>2016-07-31T11:11:10Z</time>
      </trkpt>
      <trkpt lat="42.4179" lon="0.06406">
        <ele>795</ele>
        <time>2016-07-31T11:11:11Z</time>
      </trkpt>
      <trkpt lat="42.41794" lon="0.06407">
        <ele>795.5</ele>
        <time>2016-07-31T11:11:12Z</time>
      </trkpt>
      <trkpt lat="42.41797" lon="0.06408">
        <ele>796</ele>
        <time>2016-07-31T11:11:13Z</time>
      </trkpt>
      <trkpt lat="42.418" lon="0.0641">
        <ele>796.6</ele>
        <time>2016-07-31T11:11:14Z</time>
      </trkpt>
      <trkpt lat="42.41802" lon="0.06413">
        <ele>797.2</ele>
        <time>2016-07-31T11:11:15Z</time>
      </trkpt>
      <trkpt lat="42.41804" lon="0.06417">
        <ele>797.9</ele>
        <time>2016-07-31T11:11:16Z</time>
      </trkpt>
      <trkpt lat="42.41806" lon="0.0642">
        <ele>798.5</ele>
        <time>2016-07-31T11:11:17Z</time>
      </trkpt>
      <trkpt lat="42.41811" lon="0.06424">
        <ele>799.4</ele>
        <time>2016-07-31T11:11:19Z</time>
      </trkpt>
      <trkpt lat="42.41815" lon="0.06426">
        <ele>799.9</ele>
        <time>2016-07-31T11:11:20Z</time>
      </trkpt>
      <trkpt lat="42.41819" lon="0.06427">
        <ele>800.2</ele>
        <time>2016-07-31T11:11:21Z</time>
      </trkpt>
      <trkpt lat="42.41821" lon="0.06428">
        <ele>800.5</ele>
        <time>2016-07-31T11:11:23Z</time>
      </trkpt>
      <trkpt lat="42.41823" lon="0.06431">
        <ele>801</ele>
        <time>2016-07-31T11:11:25Z</time>
      </trkpt>
      <trkpt lat="42.41825" lon="0.06436">
        <ele>801.7</ele>
        <time>2016-07-31T11:11:27Z</time>
      </trkpt>
      <trkpt lat="42.41827" lon="0.06438">
        <ele>802</ele>
        <time>2016-07-31T11:11:28Z</time>
      </trkpt>
      <trkpt lat="42.41831" lon="0.06439">
        <ele>802.4</ele>
        <time>2016-07-31T11:11:29Z</time>
      </trkpt>
      <trkpt lat="42.41835" lon="0.0644">
        <ele>802.6</ele>
        <time>2016-07-31T11:11:30Z</time>
      </trkpt>
      <trkpt lat="42.4184" lon="0.06441">
        <ele>802.9</ele>
        <time>2016-07-31T11:11:31Z</time>
      </trkpt>
      <trkpt lat="42.41845" lon="0.06441">
        <ele>803.1</ele>
        <time>2016-07-31T11:11:32Z</time>
      </trkpt>
      <trkpt lat="42.4185" lon="0.06442">
        <ele>803.3</ele>
        <time>2016-07-31T11:11:33Z</time>
      </trkpt>
      <trkpt lat="42.41856" lon="0.06444">
        <ele>803.7</ele>
        <time>2016-07-31T11:11:34Z</time>
      </trkpt>
      <trkpt lat="42.41862" lon="0.06446">
        <ele>804</ele>
        <time>2016-07-31T11:11:35Z</time>
      </trkpt>
      <trkpt lat="42.41868" lon="0.0645">
        <ele>804.4</ele>
        <time>2016-07-31T11:11:36Z</time>
      </trkpt>
      <trkpt lat="42.41873" lon="0.06455">
        <ele>804.8</ele>
        <time>2016-07-31T11:11:37Z</time>
      </trkpt>
      <trkpt lat="42.41878" lon="0.06459">
        <ele>805</ele>
        <time>2016-07-31T11:11:38Z</time>
      </trkpt>
      <trkpt lat="42.41881" lon="0.06464">
        <ele>804.4</ele>
        <time>2016-07-31T11:11:39Z</time>
      </trkpt>
      <trkpt lat="42.41885" lon="0.06468">
        <ele>803.7</ele>
        <time>2016-07-31T11:11:40Z</time>
      </trkpt>
      <trkpt lat="42.41889" lon="0.06472">
        <ele>803.1</ele>
        <time>2016-07-31T11:11:41Z</time>
      </trkpt>
      <trkpt lat="42.41893" lon="0.06476">
        <ele>802.6</ele>
        <time>2016-07-31T11:11:42Z</time>
      </trkpt>
      <trkpt lat="42.41896" lon="0.06479">
        <ele>802.2</ele>
        <time>2016-07-31T11:11:43Z</time>
      </trkpt>
      <trkpt lat="42.419" lon="0.0648">
        <ele>802</ele>
        <time>2016-07-31T11:11:45Z</time>
      </trkpt>
      <trkpt lat="42.41904" lon="0.0648">
        <ele>802.3</ele>
        <time>2016-07-31T11:11:47Z</time>
      </trkpt>
      <trkpt lat="42.41907" lon="0.0648">
        <ele>802.5</ele>
        <time>2016-07-31T11:11:49Z</time>
      </trkpt>
      <trkpt lat="42.4191" lon="0.06481">
        <ele>802.5</ele>
        <time>2016-07-31T11:11:51Z</time>
      </trkpt>
      <trkpt lat="42.41914" lon="0.06483">
        <ele>802.3</ele>
        <time>2016-07-31T11:11:54Z</time>
      </trkpt>
      <trkpt lat="42.41918" lon="0.06483">
        <ele>802.6</ele>
        <time>2016-07-31T11:11:57Z</time>
      </trkpt>
      <trkpt lat="42.41922" lon="0.06483">
        <ele>802.8</ele>
        <time>2016-07-31T11:12:00Z</time>
      </trkpt>
      <trkpt lat="42.41926" lon="0.06484">
        <ele>802.8</ele>
        <time>2016-07-31T11:12:03Z</time>
      </trkpt>
      <trkpt lat="42.41928" lon="0.06484">
        <ele>803</ele>
        <time>2016-07-31T11:12:06Z</time>
      </trkpt>
      <trkpt lat="42.41932" lon="0.06483">
        <ele>803.5</ele>
        <time>2016-07-31T11:12:09Z</time>
      </trkpt>
      <trkpt lat="42.41935" lon="0.06484">
        <ele>803.5</ele>
        <time>2016-07-31T11:12:11Z</time>
      </trkpt>
      <trkpt lat="42.41939" lon="0.06485">
        <ele>803.3</ele>
        <time>2016-07-31T11:12:13Z</time>
      </trkpt>
      <trkpt lat="42.41943" lon="0.06486">
        <ele>803.4</ele>
        <time>2016-07-31T11:12:15Z</time>
      </trkpt>
      <trkpt lat="42.41949" lon="0.06486">
        <ele>803.9</ele>
        <time>2016-07-31T11:12:17Z</time>
      </trkpt>
      <trkpt lat="42.41953" lon="0.06484">
        <ele>804.7</ele>
        <time>2016-07-31T11:12:19Z</time>
      </trkpt>
      <trkpt lat="42.41957" lon="0.06484">
        <ele>804.9</ele>
        <time>2016-07-31T11:12:21Z</time>
      </trkpt>
      <trkpt lat="42.41962" lon="0.06485">
        <ele>805.2</ele>
        <time>2016-07-31T11:12:23Z</time>
      </trkpt>
      <trkpt lat="42.41965" lon="0.06485">
        <ele>805.4</ele>
        <time>2016-07-31T11:12:24Z</time>
      </trkpt>
      <trkpt lat="42.4197" lon="0.06483">
        <ele>806.3</ele>
        <time>2016-07-31T11:12:26Z</time>
      </trkpt>
      <trkpt lat="42.41973" lon="0.06479">
        <ele>807.8</ele>
        <time>2016-07-31T11:12:28Z</time>
      </trkpt>
      <trkpt lat="42.41975" lon="0.06475">
        <ele>809.2</ele>
        <time>2016-07-31T11:12:30Z</time>
      </trkpt>
      <trkpt lat="42.41981" lon="0.06474">
        <ele>809.9</ele>
        <time>2016-07-31T11:12:32Z</time>
      </trkpt>
      <trkpt lat="42.41986" lon="0.06474">
        <ele>810</ele>
        <time>2016-07-31T11:12:34Z</time>
      </trkpt>
      <trkpt lat="42.41989" lon="0.06475">
        <ele>810.1</ele>
        <time>2016-07-31T11:12:35Z</time>
      </trkpt>
      <trkpt lat="42.41992" lon="0.06476">
        <ele>810.1</ele>
        <time>2016-07-31T11:12:36Z</time>
      </trkpt>
      <trkpt lat="42.41997" lon="0.06476">
        <ele>810.4</ele>
        <time>2016-07-31T11:12:38Z</time>
      </trkpt>
      <trkpt lat="42.42" lon="0.06477">
        <ele>810.5</ele>
        <time>2016-07-31T11:12:39Z</time>
      </trkpt>
      <trkpt lat="42.42003" lon="0.06477">
        <ele>810.7</ele>
        <time>2016-07-31T11:12:40Z</time>
      </trkpt>
      <trkpt lat="42.42009" lon="0.06478">
        <ele>810.7</ele>
        <time>2016-07-31T11:12:42Z</time>
      </trkpt>
      <trkpt lat="42.42012" lon="0.0648">
        <ele>810.6</ele>
        <time>2016-07-31T11:12:43Z</time>
      </trkpt>
      <trkpt lat="42.42016" lon="0.06482">
        <ele>810.4</ele>
        <time>2016-07-31T11:12:44Z</time>
      </trkpt>
      <trkpt lat="42.42019" lon="0.06483">
        <ele>810.2</ele>
        <time>2016-07-31T11:12:45Z</time>
      </trkpt>
      <trkpt lat="42.42022" lon="0.06485">
        <ele>810</ele>
        <time>2016-07-31T11:12:46Z</time>
      </trkpt>
      <trkpt lat="42.42025" lon="0.06487">
        <ele>809.7</ele>
        <time>2016-07-31T11:12:47Z</time>
      </trkpt>
      <trkpt lat="42.42027" lon="0.06489">
        <ele>809.3</ele>
        <time>2016-07-31T11:12:48Z</time>
      </trkpt>
      <trkpt lat="42.4203" lon="0.06492">
        <ele>809</ele>
        <time>2016-07-31T11:12:49Z</time>
      </trkpt>
      <trkpt lat="42.42033" lon="0.06494">
        <ele>808.7</ele>
        <time>2016-07-31T11:12:50Z</time>
      </trkpt>
      <trkpt lat="42.42035" lon="0.06495">
        <ele>808.5</ele>
        <time>2016-07-31T11:12:51Z</time>
      </trkpt>
      <trkpt lat="42.42038" lon="0.06498">
        <ele>808.3</ele>
        <time>2016-07-31T11:12:52Z</time>
      </trkpt>
      <trkpt lat="42.42041" lon="0.065">
        <ele>808</ele>
        <time>2016-07-31T11:12:53Z</time>
      </trkpt>
      <trkpt lat="42.42044" lon="0.06502">
        <ele>807.8</ele>
        <time>2016-07-31T11:12:54Z</time>
      </trkpt>
      <trkpt lat="42.42047" lon="0.06504">
        <ele>807.7</ele>
        <time>2016-07-31T11:12:55Z</time>
      </trkpt>
      <trkpt lat="42.42052" lon="0.06506">
        <ele>807.8</ele>
        <time>2016-07-31T11:12:57Z</time>
      </trkpt>
      <trkpt lat="42.42056" lon="0.06508">
        <ele>808</ele>
        <time>2016-07-31T11:12:58Z</time>
      </trkpt>
      <trkpt lat="42.42059" lon="0.06509">
        <ele>808.1</ele>
        <time>2016-07-31T11:12:59Z</time>
      </trkpt>
      <trkpt lat="42.42062" lon="0.0651">
        <ele>808.2</ele>
        <time>2016-07-31T11:13:00Z</time>
      </trkpt>
      <trkpt lat="42.42065" lon="0.06512">
        <ele>808</ele>
        <time>2016-07-31T11:13:01Z</time>
      </trkpt>
      <trkpt lat="42.42067" lon="0.06515">
        <ele>807.7</ele>
        <time>2016-07-31T11:13:02Z</time>
      </trkpt>
      <trkpt lat="42.4207" lon="0.06518">
        <ele>807.3</ele>
        <time>2016-07-31T11:13:03Z</time>
      </trkpt>
      <trkpt lat="42.42072" lon="0.06521">
        <ele>806.8</ele>
        <time>2016-07-31T11:13:04Z</time>
      </trkpt>
      <trkpt lat="42.42074" lon="0.06524">
        <ele>806.5</ele>
        <time>2016-07-31T11:13:05Z</time>
      </trkpt>
      <trkpt lat="42.42076" lon="0.06527">
        <ele>806.1</ele>
        <time>2016-07-31T11:13:07Z</time>
      </trkpt>
      <trkpt lat="42.42081" lon="0.06527">
        <ele>806.5</ele>
        <time>2016-07-31T11:13:09Z</time>
      </trkpt>
      <trkpt lat="42.42084" lon="0.06528">
        <ele>806.9</ele>
        <time>2016-07-31T11:13:10Z</time>
      </trkpt>
      <trkpt lat="42.42087" lon="0.06529">
        <ele>807</ele>
        <time>2016-07-31T11:13:11Z</time>
      </trkpt>
      <trkpt lat="42.4209" lon="0.06532">
        <ele>806.8</ele>
        <time>2016-07-31T11:13:12Z</time>
      </trkpt>
      <trkpt lat="42.42094" lon="0.06535">
        <ele>806.4</ele>
        <time>2016-07-31T11:13:13Z</time>
      </trkpt>
      <trkpt lat="42.42098" lon="0.0654">
        <ele>805.9</ele>
        <time>2016-07-31T11:13:14Z</time>
      </trkpt>
      <trkpt lat="42.42101" lon="0.06543">
        <ele>805.4</ele>
        <time>2016-07-31T11:13:15Z</time>
      </trkpt>
      <trkpt lat="42.42103" lon="0.06546">
        <ele>804.9</ele>
        <time>2016-07-31T11:13:16Z</time>
      </trkpt>
      <trkpt lat="42.42106" lon="0.06547">
        <ele>804.8</ele>
        <time>2016-07-31T11:13:17Z</time>
      </trkpt>
      <trkpt lat="42.4211" lon="0.06549">
        <ele>804.7</ele>
        <time>2016-07-31T11:13:18Z</time>
      </trkpt>
      <trkpt lat="42.42113" lon="0.06552">
        <ele>804.4</ele>
        <time>2016-07-31T11:13:19Z</time>
      </trkpt>
      <trkpt lat="42.42117" lon="0.06555">
        <ele>803.8</ele>
        <time>2016-07-31T11:13:20Z</time>
      </trkpt>
      <trkpt lat="42.42121" lon="0.06559">
        <ele>803.2</ele>
        <time>2016-07-31T11:13:21Z</time>
      </trkpt>
      <trkpt lat="42.42124" lon="0.06563">
        <ele>802.6</ele>
        <time>2016-07-31T11:13:22Z</time>
      </trkpt>
      <trkpt lat="42.42127" lon="0.06565">
        <ele>802.3</ele>
        <time>2016-07-31T11:13:23Z</time>
      </trkpt>
      <trkpt lat="42.42131" lon="0.06567">
        <ele>802.3</ele>
        <time>2016-07-31T11:13:24Z</time>
      </trkpt>
      <trkpt lat="42.42133" lon="0.06569">
        <ele>802</ele>
        <time>2016-07-31T11:13:25Z</time>
      </trkpt>
      <trkpt lat="42.42137" lon="0.06575">
        <ele>801</ele>
        <time>2016-07-31T11:13:27Z</time>
      </trkpt>
      <trkpt lat="42.42141" lon="0.06577">
        <ele>800.8</ele>
        <time>2016-07-31T11:13:28Z</time>
      </trkpt>
      <trkpt lat="42.42145" lon="0.06579">
        <ele>800.9</ele>
        <time>2016-07-31T11:13:29Z</time>
      </trkpt>
      <trkpt lat="42.42149" lon="0.0658">
        <ele>801.2</ele>
        <time>2016-07-31T11:13:30Z</time>
      </trkpt>
      <trkpt lat="42.42154" lon="0.06581">
        <ele>801.7</ele>
        <time>2016-07-31T11:13:31Z</time>
      </trkpt>
      <trkpt lat="42.42159" lon="0.06582">
        <ele>802.1</ele>
        <time>2016-07-31T11:13:32Z</time>
      </trkpt>
      <trkpt lat="42.42164" lon="0.06583">
        <ele>802.3</ele>
        <time>2016-07-31T11:13:33Z</time>
      </trkpt>
      <trkpt lat="42.42168" lon="0.06586">
        <ele>802.2</ele>
        <time>2016-07-31T11:13:34Z</time>
      </trkpt>
      <trkpt lat="42.42172" lon="0.06588">
        <ele>802.2</ele>
        <time>2016-07-31T11:13:35Z</time>
      </trkpt>
      <trkpt lat="42.42176" lon="0.06589">
        <ele>802.3</ele>
        <time>2016-07-31T11:13:36Z</time>
      </trkpt>
      <trkpt lat="42.4218" lon="0.0659">
        <ele>802.6</ele>
        <time>2016-07-31T11:13:37Z</time>
      </trkpt>
      <trkpt lat="42.42183" lon="0.06591">
        <ele>802.8</ele>
        <time>2016-07-31T11:13:38Z</time>
      </trkpt>
      <trkpt lat="42.42186" lon="0.06591">
        <ele>803.1</ele>
        <time>2016-07-31T11:13:39Z</time>
      </trkpt>
      <trkpt lat="42.42191" lon="0.06592">
        <ele>803.4</ele>
        <time>2016-07-31T11:13:40Z</time>
      </trkpt>
      <trkpt lat="42.42195" lon="0.06592">
        <ele>804.1</ele>
        <time>2016-07-31T11:13:41Z</time>
      </trkpt>
      <trkpt lat="42.422" lon="0.06592">
        <ele>805</ele>
        <time>2016-07-31T11:13:42Z</time>
      </trkpt>
      <trkpt lat="42.42204" lon="0.06591">
        <ele>805.8</ele>
        <time>2016-07-31T11:13:43Z</time>
      </trkpt>
      <trkpt lat="42.42209" lon="0.06591">
        <ele>806.6</ele>
        <time>2016-07-31T11:13:44Z</time>
      </trkpt>
      <trkpt lat="42.42214" lon="0.06591">
        <ele>806.7</ele>
        <time>2016-07-31T11:13:45Z</time>
      </trkpt>
      <trkpt lat="42.42219" lon="0.06592">
        <ele>806.8</ele>
        <time>2016-07-31T11:13:46Z</time>
      </trkpt>
      <trkpt lat="42.42224" lon="0.06592">
        <ele>806.7</ele>
        <time>2016-07-31T11:13:47Z</time>
      </trkpt>
      <trkpt lat="42.42229" lon="0.06593">
        <ele>806.8</ele>
        <time>2016-07-31T11:13:48Z</time>
      </trkpt>
      <trkpt lat="42.42233" lon="0.06593">
        <ele>807</ele>
        <time>2016-07-31T11:13:49Z</time>
      </trkpt>
      <trkpt lat="42.42236" lon="0.06593">
        <ele>807.2</ele>
        <time>2016-07-31T11:13:50Z</time>
      </trkpt>
      <trkpt lat="42.42241" lon="0.06594">
        <ele>807.2</ele>
        <time>2016-07-31T11:13:54Z</time>
      </trkpt>
      <trkpt lat="42.42244" lon="0.06594">
        <ele>807.2</ele>
        <time>2016-07-31T11:13:55Z</time>
      </trkpt>
      <trkpt lat="42.42247" lon="0.06595">
        <ele>807.2</ele>
        <time>2016-07-31T11:13:56Z</time>
      </trkpt>
      <trkpt lat="42.42251" lon="0.06595">
        <ele>807.2</ele>
        <time>2016-07-31T11:13:57Z</time>
      </trkpt>
      <trkpt lat="42.42254" lon="0.06595">
        <ele>807.4</ele>
        <time>2016-07-31T11:13:58Z</time>
      </trkpt>
      <trkpt lat="42.42258" lon="0.06596">
        <ele>807.5</ele>
        <time>2016-07-31T11:13:59Z</time>
      </trkpt>
      <trkpt lat="42.42262" lon="0.06596">
        <ele>807.5</ele>
        <time>2016-07-31T11:14:00Z</time>
      </trkpt>
      <trkpt lat="42.42267" lon="0.06597">
        <ele>807.6</ele>
        <time>2016-07-31T11:14:01Z</time>
      </trkpt>
      <trkpt lat="42.42273" lon="0.06597">
        <ele>807.7</ele>
        <time>2016-07-31T11:14:02Z</time>
      </trkpt>
      <trkpt lat="42.42278" lon="0.06599">
        <ele>807.5</ele>
        <time>2016-07-31T11:14:03Z</time>
      </trkpt>
      <trkpt lat="42.42284" lon="0.066">
        <ele>807.4</ele>
        <time>2016-07-31T11:14:04Z</time>
      </trkpt>
      <trkpt lat="42.4229" lon="0.06602">
        <ele>807</ele>
        <time>2016-07-31T11:14:05Z</time>
      </trkpt>
      <trkpt lat="42.42295" lon="0.06605">
        <ele>806.6</ele>
        <time>2016-07-31T11:14:06Z</time>
      </trkpt>
      <trkpt lat="42.423" lon="0.06608">
        <ele>806.3</ele>
        <time>2016-07-31T11:14:07Z</time>
      </trkpt>
      <trkpt lat="42.42304" lon="0.06611">
        <ele>805.9</ele>
        <time>2016-07-31T11:14:08Z</time>
      </trkpt>
      <trkpt lat="42.42307" lon="0.06613">
        <ele>805.5</ele>
        <time>2016-07-31T11:14:09Z</time>
      </trkpt>
      <trkpt lat="42.42311" lon="0.06617">
        <ele>805</ele>
        <time>2016-07-31T11:14:10Z</time>
      </trkpt>
      <trkpt lat="42.42316" lon="0.0662">
        <ele>804.4</ele>
        <time>2016-07-31T11:14:11Z</time>
      </trkpt>
      <trkpt lat="42.42319" lon="0.06625">
        <ele>803.5</ele>
        <time>2016-07-31T11:14:12Z</time>
      </trkpt>
      <trkpt lat="42.42323" lon="0.0663">
        <ele>802.6</ele>
        <time>2016-07-31T11:14:13Z</time>
      </trkpt>
      <trkpt lat="42.42326" lon="0.06635">
        <ele>801.6</ele>
        <time>2016-07-31T11:14:14Z</time>
      </trkpt>
      <trkpt lat="42.42328" lon="0.06641">
        <ele>800.6</ele>
        <time>2016-07-31T11:14:15Z</time>
      </trkpt>
      <trkpt lat="42.4233" lon="0.06646">
        <ele>799.5</ele>
        <time>2016-07-31T11:14:16Z</time>
      </trkpt>
      <trkpt lat="42.42331" lon="0.06651">
        <ele>798.4</ele>
        <time>2016-07-31T11:14:17Z</time>
      </trkpt>
      <trkpt lat="42.42333" lon="0.06655">
        <ele>797.6</ele>
        <time>2016-07-31T11:14:18Z</time>
      </trkpt>
      <trkpt lat="42.42336" lon="0.06658">
        <ele>797.2</ele>
        <time>2016-07-31T11:14:19Z</time>
      </trkpt>
      <trkpt lat="42.4234" lon="0.06661">
        <ele>797</ele>
        <time>2016-07-31T11:14:20Z</time>
      </trkpt>
      <trkpt lat="42.42345" lon="0.06663">
        <ele>797</ele>
        <time>2016-07-31T11:14:21Z</time>
      </trkpt>
      <trkpt lat="42.42349" lon="0.06664">
        <ele>797</ele>
        <time>2016-07-31T11:14:22Z</time>
      </trkpt>
      <trkpt lat="42.42354" lon="0.06666">
        <ele>797</ele>
        <time>2016-07-31T11:14:23Z</time>
      </trkpt>
      <trkpt lat="42.42359" lon="0.06668">
        <ele>796.9</ele>
        <time>2016-07-31T11:14:24Z</time>
      </trkpt>
      <trkpt lat="42.42365" lon="0.06671">
        <ele>796.9</ele>
        <time>2016-07-31T11:14:25Z</time>
      </trkpt>
      <trkpt lat="42.42371" lon="0.06673">
        <ele>796.9</ele>
        <time>2016-07-31T11:14:26Z</time>
      </trkpt>
      <trkpt lat="42.42378" lon="0.06676">
        <ele>797</ele>
        <time>2016-07-31T11:14:27Z</time>
      </trkpt>
      <trkpt lat="42.42384" lon="0.06678">
        <ele>797.3</ele>
        <time>2016-07-31T11:14:28Z</time>
      </trkpt>
      <trkpt lat="42.42389" lon="0.06679">
        <ele>797.6</ele>
        <time>2016-07-31T11:14:29Z</time>
      </trkpt>
      <trkpt lat="42.42393" lon="0.06681">
        <ele>797.7</ele>
        <time>2016-07-31T11:14:30Z</time>
      </trkpt>
      <trkpt lat="42.42398" lon="0.06683">
        <ele>797.7</ele>
        <time>2016-07-31T11:14:31Z</time>
      </trkpt>
      <trkpt lat="42.42401" lon="0.06686">
        <ele>797.4</ele>
        <time>2016-07-31T11:14:32Z</time>
      </trkpt>
      <trkpt lat="42.42405" lon="0.06689">
        <ele>797.1</ele>
        <time>2016-07-31T11:14:33Z</time>
      </trkpt>
      <trkpt lat="42.42408" lon="0.06693">
        <ele>796.6</ele>
        <time>2016-07-31T11:14:34Z</time>
      </trkpt>
      <trkpt lat="42.42411" lon="0.06696">
        <ele>796</ele>
        <time>2016-07-31T11:14:35Z</time>
      </trkpt>
      <trkpt lat="42.42414" lon="0.067">
        <ele>795.4</ele>
        <time>2016-07-31T11:14:36Z</time>
      </trkpt>
      <trkpt lat="42.42417" lon="0.06704">
        <ele>794.8</ele>
        <time>2016-07-31T11:14:37Z</time>
      </trkpt>
      <trkpt lat="42.42419" lon="0.06706">
        <ele>794.3</ele>
        <time>2016-07-31T11:14:38Z</time>
      </trkpt>
      <trkpt lat="42.42421" lon="0.06709">
        <ele>793.8</ele>
        <time>2016-07-31T11:14:39Z</time>
      </trkpt>
      <trkpt lat="42.42423" lon="0.06713">
        <ele>793.2</ele>
        <time>2016-07-31T11:14:40Z</time>
      </trkpt>
      <trkpt lat="42.42425" lon="0.06718">
        <ele>792.3</ele>
        <time>2016-07-31T11:14:41Z</time>
      </trkpt>
      <trkpt lat="42.42427" lon="0.06723">
        <ele>791.3</ele>
        <time>2016-07-31T11:14:42Z</time>
      </trkpt>
      <trkpt lat="42.4243" lon="0.06728">
        <ele>790.5</ele>
        <time>2016-07-31T11:14:43Z</time>
      </trkpt>
      <trkpt lat="42.42433" lon="0.06732">
        <ele>790</ele>
        <time>2016-07-31T11:14:44Z</time>
      </trkpt>
      <trkpt lat="42.42436" lon="0.06734">
        <ele>789.8</ele>
        <time>2016-07-31T11:14:45Z</time>
      </trkpt>
      <trkpt lat="42.42439" lon="0.06737">
        <ele>789.5</ele>
        <time>2016-07-31T11:14:47Z</time>
      </trkpt>
      <trkpt lat="42.42441" lon="0.06742">
        <ele>788.5</ele>
        <time>2016-07-31T11:14:49Z</time>
      </trkpt>
      <trkpt lat="42.42437" lon="0.06746">
        <ele>787.1</ele>
        <time>2016-07-31T11:14:51Z</time>
      </trkpt>
      <trkpt lat="42.42433" lon="0.06747">
        <ele>786.2</ele>
        <time>2016-07-31T11:14:52Z</time>
      </trkpt>
      <trkpt lat="42.4243" lon="0.06747">
        <ele>785.7</ele>
        <time>2016-07-31T11:14:54Z</time>
      </trkpt>
      <trkpt lat="42.42431" lon="0.06753">
        <ele>784.5</ele>
        <time>2016-07-31T11:14:58Z</time>
      </trkpt>
      <trkpt lat="42.42433" lon="0.06757">
        <ele>783.8</ele>
        <time>2016-07-31T11:14:59Z</time>
      </trkpt>
      <trkpt lat="42.42435" lon="0.06761">
        <ele>783</ele>
        <time>2016-07-31T11:15:00Z</time>
      </trkpt>
      <trkpt lat="42.42436" lon="0.06766">
        <ele>782.2</ele>
        <time>2016-07-31T11:15:01Z</time>
      </trkpt>
      <trkpt lat="42.42438" lon="0.06769">
        <ele>781.7</ele>
        <time>2016-07-31T11:15:02Z</time>
      </trkpt>
      <trkpt lat="42.42442" lon="0.06771">
        <ele>781.6</ele>
        <time>2016-07-31T11:15:04Z</time>
      </trkpt>
      <trkpt lat="42.42444" lon="0.06775">
        <ele>781</ele>
        <time>2016-07-31T11:15:06Z</time>
      </trkpt>
      <trkpt lat="42.42441" lon="0.06779">
        <ele>779.5</ele>
        <time>2016-07-31T11:15:08Z</time>
      </trkpt>
      <trkpt lat="42.42438" lon="0.06781">
        <ele>778.7</ele>
        <time>2016-07-31T11:15:09Z</time>
      </trkpt>
      <trkpt lat="42.42435" lon="0.06783">
        <ele>777.8</ele>
        <time>2016-07-31T11:15:10Z</time>
      </trkpt>
      <trkpt lat="42.42432" lon="0.06783">
        <ele>777.3</ele>
        <time>2016-07-31T11:15:11Z</time>
      </trkpt>
      <trkpt lat="42.42428" lon="0.06782">
        <ele>777</ele>
        <time>2016-07-31T11:15:12Z</time>
      </trkpt>
      <trkpt lat="42.42425" lon="0.06781">
        <ele>776.9</ele>
        <time>2016-07-31T11:15:13Z</time>
      </trkpt>
      <trkpt lat="42.42422" lon="0.06779">
        <ele>777</ele>
        <time>2016-07-31T11:15:14Z</time>
      </trkpt>
      <trkpt lat="42.42419" lon="0.06778">
        <ele>776.8</ele>
        <time>2016-07-31T11:15:15Z</time>
      </trkpt>
      <trkpt lat="42.42416" lon="0.06782">
        <ele>775.4</ele>
        <time>2016-07-31T11:15:17Z</time>
      </trkpt>
      <trkpt lat="42.42416" lon="0.06786">
        <ele>774.3</ele>
        <time>2016-07-31T11:15:18Z</time>
      </trkpt>
      <trkpt lat="42.42417" lon="0.0679">
        <ele>773.3</ele>
        <time>2016-07-31T11:15:19Z</time>
      </trkpt>
      <trkpt lat="42.42418" lon="0.06794">
        <ele>772.7</ele>
        <time>2016-07-31T11:15:20Z</time>
      </trkpt>
      <trkpt lat="42.42421" lon="0.06799">
        <ele>772.3</ele>
        <time>2016-07-31T11:15:22Z</time>
      </trkpt>
      <trkpt lat="42.42424" lon="0.06801">
        <ele>772.5</ele>
        <time>2016-07-31T11:15:23Z</time>
      </trkpt>
      <trkpt lat="42.42428" lon="0.06802">
        <ele>772.9</ele>
        <time>2016-07-31T11:15:24Z</time>
      </trkpt>
      <trkpt lat="42.42433" lon="0.06803">
        <ele>773.2</ele>
        <time>2016-07-31T11:15:25Z</time>
      </trkpt>
      <trkpt lat="42.42437" lon="0.06805">
        <ele>773.4</ele>
        <time>2016-07-31T11:15:26Z</time>
      </trkpt>
      <trkpt lat="42.4244" lon="0.06807">
        <ele>773.5</ele>
        <time>2016-07-31T11:15:27Z</time>
      </trkpt>
      <trkpt lat="42.42442" lon="0.06809">
        <ele>773.4</ele>
        <time>2016-07-31T11:15:28Z</time>
      </trkpt>
      <trkpt lat="42.42441" lon="0.06813">
        <ele>772.4</ele>
        <time>2016-07-31T11:15:32Z</time>
      </trkpt>
      <trkpt lat="42.42438" lon="0.06816">
        <ele>771.5</ele>
        <time>2016-07-31T11:15:34Z</time>
      </trkpt>
      <trkpt lat="42.42437" lon="0.06819">
        <ele>770.7</ele>
        <time>2016-07-31T11:15:36Z</time>
      </trkpt>
      <trkpt lat="42.4244" lon="0.06823">
        <ele>770.6</ele>
        <time>2016-07-31T11:15:40Z</time>
      </trkpt>
      <trkpt lat="42.42445" lon="0.06824">
        <ele>770.9</ele>
        <time>2016-07-31T11:15:42Z</time>
      </trkpt>
      <trkpt lat="42.42448" lon="0.06825">
        <ele>771.2</ele>
        <time>2016-07-31T11:15:43Z</time>
      </trkpt>
      <trkpt lat="42.42451" lon="0.06825">
        <ele>771.5</ele>
        <time>2016-07-31T11:15:44Z</time>
      </trkpt>
      <trkpt lat="42.42454" lon="0.06826">
        <ele>771.9</ele>
        <time>2016-07-31T11:15:45Z</time>
      </trkpt>
      <trkpt lat="42.42458" lon="0.06826">
        <ele>772.3</ele>
        <time>2016-07-31T11:15:46Z</time>
      </trkpt>
      <trkpt lat="42.42461" lon="0.06827">
        <ele>772</ele>
        <time>2016-07-31T11:15:47Z</time>
      </trkpt>
      <trkpt lat="42.42465" lon="0.06829">
        <ele>771.3</ele>
        <time>2016-07-31T11:15:48Z</time>
      </trkpt>
      <trkpt lat="42.42468" lon="0.06831">
        <ele>770.7</ele>
        <time>2016-07-31T11:15:49Z</time>
      </trkpt>
      <trkpt lat="42.42472" lon="0.06834">
        <ele>769.9</ele>
        <time>2016-07-31T11:15:51Z</time>
      </trkpt>
      <trkpt lat="42.42476" lon="0.06835">
        <ele>769.4</ele>
        <time>2016-07-31T11:15:53Z</time>
      </trkpt>
      <trkpt lat="42.42478" lon="0.06836">
        <ele>769</ele>
        <time>2016-07-31T11:15:55Z</time>
      </trkpt>
      <trkpt lat="42.4248" lon="0.0684">
        <ele>768</ele>
        <time>2016-07-31T11:15:57Z</time>
      </trkpt>
      <trkpt lat="42.42478" lon="0.06845">
        <ele>767.1</ele>
        <time>2016-07-31T11:15:59Z</time>
      </trkpt>
      <trkpt lat="42.42475" lon="0.06848">
        <ele>766.6</ele>
        <time>2016-07-31T11:16:00Z</time>
      </trkpt>
      <trkpt lat="42.42473" lon="0.06851">
        <ele>766.3</ele>
        <time>2016-07-31T11:16:01Z</time>
      </trkpt>
      <trkpt lat="42.42471" lon="0.06854">
        <ele>765.9</ele>
        <time>2016-07-31T11:16:02Z</time>
      </trkpt>
      <trkpt lat="42.42467" lon="0.06858">
        <ele>765.4</ele>
        <time>2016-07-31T11:16:03Z</time>
      </trkpt>
      <trkpt lat="42.42464" lon="0.06861">
        <ele>765</ele>
        <time>2016-07-31T11:16:04Z</time>
      </trkpt>
      <trkpt lat="42.42462" lon="0.06864">
        <ele>764.7</ele>
        <time>2016-07-31T11:16:05Z</time>
      </trkpt>
      <trkpt lat="42.42463" lon="0.06869">
        <ele>763.7</ele>
        <time>2016-07-31T11:16:08Z</time>
      </trkpt>
      <trkpt lat="42.42467" lon="0.06871">
        <ele>762.7</ele>
        <time>2016-07-31T11:16:10Z</time>
      </trkpt>
      <trkpt lat="42.4247" lon="0.06872">
        <ele>762.3</ele>
        <time>2016-07-31T11:16:11Z</time>
      </trkpt>
      <trkpt lat="42.42474" lon="0.06872">
        <ele>761.8</ele>
        <time>2016-07-31T11:16:13Z</time>
      </trkpt>
      <trkpt lat="42.42475" lon="0.06877">
        <ele>760.7</ele>
        <time>2016-07-31T11:16:16Z</time>
      </trkpt>
      <trkpt lat="42.42477" lon="0.06881">
        <ele>760.2</ele>
        <time>2016-07-31T11:16:18Z</time>
      </trkpt>
      <trkpt lat="42.42481" lon="0.06882">
        <ele>759.5</ele>
        <time>2016-07-31T11:16:20Z</time>
      </trkpt>
      <trkpt lat="42.42484" lon="0.06883">
        <ele>759.1</ele>
        <time>2016-07-31T11:16:21Z</time>
      </trkpt>
      <trkpt lat="42.42488" lon="0.06885">
        <ele>758.2</ele>
        <time>2016-07-31T11:16:23Z</time>
      </trkpt>
      <trkpt lat="42.42492" lon="0.06889">
        <ele>757.3</ele>
        <time>2016-07-31T11:16:25Z</time>
      </trkpt>
      <trkpt lat="42.42494" lon="0.0689">
        <ele>756.7</ele>
        <time>2016-07-31T11:16:26Z</time>
      </trkpt>
      <trkpt lat="42.42499" lon="0.06891">
        <ele>756</ele>
        <time>2016-07-31T11:16:28Z</time>
      </trkpt>
      <trkpt lat="42.42501" lon="0.06892">
        <ele>755.3</ele>
        <time>2016-07-31T11:16:31Z</time>
      </trkpt>
      <trkpt lat="42.42501" lon="0.06898">
        <ele>754.6</ele>
        <time>2016-07-31T11:16:33Z</time>
      </trkpt>
      <trkpt lat="42.42499" lon="0.06904">
        <ele>754</ele>
        <time>2016-07-31T11:16:35Z</time>
      </trkpt>
      <trkpt lat="42.42498" lon="0.06907">
        <ele>753.8</ele>
        <time>2016-07-31T11:16:36Z</time>
      </trkpt>
      <trkpt lat="42.42496" lon="0.06913">
        <ele>753.3</ele>
        <time>2016-07-31T11:16:38Z</time>
      </trkpt>
      <trkpt lat="42.42496" lon="0.06917">
        <ele>752.7</ele>
        <time>2016-07-31T11:16:47Z</time>
      </trkpt>
      <trkpt lat="42.425" lon="0.06915">
        <ele>752.4</ele>
        <time>2016-07-31T11:16:51Z</time>
      </trkpt>
      <trkpt lat="42.42503" lon="0.06912">
        <ele>752.1</ele>
        <time>2016-07-31T11:16:53Z</time>
      </trkpt>
      <trkpt lat="42.42506" lon="0.0691">
        <ele>751.8</ele>
        <time>2016-07-31T11:16:54Z</time>
      </trkpt>
      <trkpt lat="42.4251" lon="0.06907">
        <ele>751.5</ele>
        <time>2016-07-31T11:16:55Z</time>
      </trkpt>
      <trkpt lat="42.42513" lon="0.06905">
        <ele>751.4</ele>
        <time>2016-07-31T11:16:56Z</time>
      </trkpt>
      <trkpt lat="42.42516" lon="0.06903">
        <ele>751.2</ele>
        <time>2016-07-31T11:16:57Z</time>
      </trkpt>
      <trkpt lat="42.42519" lon="0.06901">
        <ele>751</ele>
        <time>2016-07-31T11:16:58Z</time>
      </trkpt>
      <trkpt lat="42.42523" lon="0.06899">
        <ele>750.7</ele>
        <time>2016-07-31T11:17:00Z</time>
      </trkpt>
      <trkpt lat="42.42526" lon="0.06897">
        <ele>750.5</ele>
        <time>2016-07-31T11:17:02Z</time>
      </trkpt>
      <trkpt lat="42.42529" lon="0.06895">
        <ele>750.6</ele>
        <time>2016-07-31T11:17:04Z</time>
      </trkpt>
      <trkpt lat="42.42533" lon="0.06891">
        <ele>750.7</ele>
        <time>2016-07-31T11:17:06Z</time>
      </trkpt>
      <trkpt lat="42.42537" lon="0.06887">
        <ele>750.9</ele>
        <time>2016-07-31T11:17:08Z</time>
      </trkpt>
      <trkpt lat="42.42541" lon="0.06883">
        <ele>751.3</ele>
        <time>2016-07-31T11:17:10Z</time>
      </trkpt>
      <trkpt lat="42.42544" lon="0.06881">
        <ele>750.7</ele>
        <time>2016-07-31T11:17:11Z</time>
      </trkpt>
      <trkpt lat="42.42547" lon="0.06879">
        <ele>749.6</ele>
        <time>2016-07-31T11:17:12Z</time>
      </trkpt>
      <trkpt lat="42.42551" lon="0.06876">
        <ele>748.4</ele>
        <time>2016-07-31T11:17:13Z</time>
      </trkpt>
      <trkpt lat="42.42555" lon="0.06873">
        <ele>747.4</ele>
        <time>2016-07-31T11:17:14Z</time>
      </trkpt>
      <trkpt lat="42.4256" lon="0.0687">
        <ele>746.1</ele>
        <time>2016-07-31T11:17:15Z</time>
      </trkpt>
      <trkpt lat="42.42564" lon="0.06867">
        <ele>745.1</ele>
        <time>2016-07-31T11:17:16Z</time>
      </trkpt>
      <trkpt lat="42.42568" lon="0.06865">
        <ele>744.2</ele>
        <time>2016-07-31T11:17:17Z</time>
      </trkpt>
      <trkpt lat="42.42571" lon="0.06863">
        <ele>743.4</ele>
        <time>2016-07-31T11:17:18Z</time>
      </trkpt>
      <trkpt lat="42.42574" lon="0.06861">
        <ele>742.5</ele>
        <time>2016-07-31T11:17:19Z</time>
      </trkpt>
      <trkpt lat="42.42578" lon="0.06858">
        <ele>741.8</ele>
        <time>2016-07-31T11:17:20Z</time>
      </trkpt>
      <trkpt lat="42.42582" lon="0.06855">
        <ele>741.1</ele>
        <time>2016-07-31T11:17:21Z</time>
      </trkpt>
      <trkpt lat="42.42586" lon="0.06851">
        <ele>740.6</ele>
        <time>2016-07-31T11:17:22Z</time>
      </trkpt>
      <trkpt lat="42.42589" lon="0.06847">
        <ele>740.3</ele>
        <time>2016-07-31T11:17:23Z</time>
      </trkpt>
      <trkpt lat="42.4259" lon="0.06844">
        <ele>741</ele>
        <time>2016-07-31T11:17:30Z</time>
      </trkpt>
      <trkpt lat="42.42593" lon="0.06843">
        <ele>740</ele>
        <time>2016-07-31T11:17:33Z</time>
      </trkpt>
      <trkpt lat="42.42596" lon="0.0684">
        <ele>739.4</ele>
        <time>2016-07-31T11:17:36Z</time>
      </trkpt>
      <trkpt lat="42.42599" lon="0.06837">
        <ele>739.1</ele>
        <time>2016-07-31T11:17:40Z</time>
      </trkpt>
      <trkpt lat="42.426" lon="0.06834">
        <ele>739.6</ele>
        <time>2016-07-31T11:17:44Z</time>
      </trkpt>
      <trkpt lat="42.42603" lon="0.06831">
        <ele>739.6</ele>
        <time>2016-07-31T11:17:47Z</time>
      </trkpt>
      <trkpt lat="42.42605" lon="0.06831">
        <ele>738.2</ele>
        <time>2016-07-31T11:17:51Z</time>
      </trkpt>
      <trkpt lat="42.42609" lon="0.06832">
        <ele>736.1</ele>
        <time>2016-07-31T11:17:54Z</time>
      </trkpt>
      <trkpt lat="42.42614" lon="0.06832">
        <ele>734.2</ele>
        <time>2016-07-31T11:17:56Z</time>
      </trkpt>
      <trkpt lat="42.42618" lon="0.0683">
        <ele>733</ele>
        <time>2016-07-31T11:17:58Z</time>
      </trkpt>
      <trkpt lat="42.42623" lon="0.06829">
        <ele>731.6</ele>
        <time>2016-07-31T11:18:00Z</time>
      </trkpt>
      <trkpt lat="42.42626" lon="0.06827">
        <ele>730.5</ele>
        <time>2016-07-31T11:18:02Z</time>
      </trkpt>
      <trkpt lat="42.42629" lon="0.06825">
        <ele>730</ele>
        <time>2016-07-31T11:18:04Z</time>
      </trkpt>
      <trkpt lat="42.42632" lon="0.06822">
        <ele>729.9</ele>
        <time>2016-07-31T11:18:06Z</time>
      </trkpt>
      <trkpt lat="42.42635" lon="0.06818">
        <ele>729.6</ele>
        <time>2016-07-31T11:18:08Z</time>
      </trkpt>
      <trkpt lat="42.42638" lon="0.06816">
        <ele>728.7</ele>
        <time>2016-07-31T11:18:09Z</time>
      </trkpt>
      <trkpt lat="42.42642" lon="0.06814">
        <ele>727.6</ele>
        <time>2016-07-31T11:18:10Z</time>
      </trkpt>
      <trkpt lat="42.42646" lon="0.06811">
        <ele>726.7</ele>
        <time>2016-07-31T11:18:11Z</time>
      </trkpt>
      <trkpt lat="42.4265" lon="0.06806">
        <ele>726.3</ele>
        <time>2016-07-31T11:18:12Z</time>
      </trkpt>
      <trkpt lat="42.42653" lon="0.06802">
        <ele>726.1</ele>
        <time>2016-07-31T11:18:13Z</time>
      </trkpt>
      <trkpt lat="42.42655" lon="0.06799">
        <ele>726.1</ele>
        <time>2016-07-31T11:18:14Z</time>
      </trkpt>
      <trkpt lat="42.42657" lon="0.06796">
        <ele>725.9</ele>
        <time>2016-07-31T11:18:15Z</time>
      </trkpt>
      <trkpt lat="42.4266" lon="0.06792">
        <ele>725.6</ele>
        <time>2016-07-31T11:18:16Z</time>
      </trkpt>
      <trkpt lat="42.42663" lon="0.06789">
        <ele>725</ele>
        <time>2016-07-31T11:18:17Z</time>
      </trkpt>
      <trkpt lat="42.42665" lon="0.06784">
        <ele>724.8</ele>
        <time>2016-07-31T11:18:18Z</time>
      </trkpt>
      <trkpt lat="42.42667" lon="0.0678">
        <ele>725</ele>
        <time>2016-07-31T11:18:19Z</time>
      </trkpt>
      <trkpt lat="42.42667" lon="0.06776">
        <ele>725.8</ele>
        <time>2016-07-31T11:18:20Z</time>
      </trkpt>
      <trkpt lat="42.42667" lon="0.06772">
        <ele>726.6</ele>
        <time>2016-07-31T11:18:22Z</time>
      </trkpt>
      <trkpt lat="42.42672" lon="0.06769">
        <ele>725.1</ele>
        <time>2016-07-31T11:18:24Z</time>
      </trkpt>
      <trkpt lat="42.42677" lon="0.0677">
        <ele>722.4</ele>
        <time>2016-07-31T11:18:26Z</time>
      </trkpt>
      <trkpt lat="42.4268" lon="0.06771">
        <ele>720.6</ele>
        <time>2016-07-31T11:18:27Z</time>
      </trkpt>
      <trkpt lat="42.42682" lon="0.06773">
        <ele>719</ele>
        <time>2016-07-31T11:18:28Z</time>
      </trkpt>
      <trkpt lat="42.42684" lon="0.06776">
        <ele>717.2</ele>
        <time>2016-07-31T11:18:29Z</time>
      </trkpt>
      <trkpt lat="42.42688" lon="0.06777">
        <ele>715.1</ele>
        <time>2016-07-31T11:18:30Z</time>
      </trkpt>
      <trkpt lat="42.42692" lon="0.06779">
        <ele>712.7</ele>
        <time>2016-07-31T11:18:31Z</time>
      </trkpt>
      <trkpt lat="42.42696" lon="0.06779">
        <ele>710.7</ele>
        <time>2016-07-31T11:18:32Z</time>
      </trkpt>
      <trkpt lat="42.427" lon="0.06778">
        <ele>709.1</ele>
        <time>2016-07-31T11:18:33Z</time>
      </trkpt>
      <trkpt lat="42.42703" lon="0.06776">
        <ele>707.6</ele>
        <time>2016-07-31T11:18:34Z</time>
      </trkpt>
      <trkpt lat="42.42706" lon="0.06775">
        <ele>706.3</ele>
        <time>2016-07-31T11:18:35Z</time>
      </trkpt>
      <trkpt lat="42.42711" lon="0.06774">
        <ele>704.8</ele>
        <time>2016-07-31T11:18:37Z</time>
      </trkpt>
      <trkpt lat="42.42717" lon="0.06773">
        <ele>703.3</ele>
        <time>2016-07-31T11:18:39Z</time>
      </trkpt>
      <trkpt lat="42.4272" lon="0.06772">
        <ele>702.7</ele>
        <time>2016-07-31T11:18:40Z</time>
      </trkpt>
      <trkpt lat="42.42723" lon="0.06771">
        <ele>702.1</ele>
        <time>2016-07-31T11:18:41Z</time>
      </trkpt>
      <trkpt lat="42.42726" lon="0.0677">
        <ele>701.3</ele>
        <time>2016-07-31T11:18:42Z</time>
      </trkpt>
      <trkpt lat="42.4273" lon="0.06769">
        <ele>700.3</ele>
        <time>2016-07-31T11:18:44Z</time>
      </trkpt>
      <trkpt lat="42.42734" lon="0.06765">
        <ele>699.8</ele>
        <time>2016-07-31T11:18:46Z</time>
      </trkpt>
      <trkpt lat="42.42738" lon="0.06766">
        <ele>698.6</ele>
        <time>2016-07-31T11:18:49Z</time>
      </trkpt>
      <trkpt lat="42.42738" lon="0.06773">
        <ele>697.1</ele>
        <time>2016-07-31T11:18:51Z</time>
      </trkpt>
      <trkpt lat="42.42739" lon="0.06779">
        <ele>695.6</ele>
        <time>2016-07-31T11:18:53Z</time>
      </trkpt>
      <trkpt lat="42.4274" lon="0.06783">
        <ele>694.5</ele>
        <time>2016-07-31T11:18:55Z</time>
      </trkpt>
      <trkpt lat="42.42743" lon="0.06785">
        <ele>693.4</ele>
        <time>2016-07-31T11:18:58Z</time>
      </trkpt>
      <trkpt lat="42.42745" lon="0.06788">
        <ele>692.3</ele>
        <time>2016-07-31T11:19:00Z</time>
      </trkpt>
      <trkpt lat="42.42745" lon="0.06792">
        <ele>691.5</ele>
        <time>2016-07-31T11:19:03Z</time>
      </trkpt>
      <trkpt lat="42.42749" lon="0.06793">
        <ele>690</ele>
        <time>2016-07-31T11:19:06Z</time>
      </trkpt>
      <trkpt lat="42.42753" lon="0.06792">
        <ele>689.2</ele>
        <time>2016-07-31T11:19:07Z</time>
      </trkpt>
      <trkpt lat="42.42756" lon="0.0679">
        <ele>688.6</ele>
        <time>2016-07-31T11:19:08Z</time>
      </trkpt>
      <trkpt lat="42.42756" lon="0.06795">
        <ele>687.3</ele>
        <time>2016-07-31T11:19:14Z</time>
      </trkpt>
      <trkpt lat="42.42755" lon="0.06798">
        <ele>686.9</ele>
        <time>2016-07-31T11:19:15Z</time>
      </trkpt>
      <trkpt lat="42.42754" lon="0.06805">
        <ele>685.7</ele>
        <time>2016-07-31T11:19:17Z</time>
      </trkpt>
      <trkpt lat="42.42755" lon="0.06809">
        <ele>684.2</ele>
        <time>2016-07-31T11:19:19Z</time>
      </trkpt>
      <trkpt lat="42.42758" lon="0.06812">
        <ele>682.7</ele>
        <time>2016-07-31T11:19:21Z</time>
      </trkpt>
      <trkpt lat="42.42759" lon="0.06818">
        <ele>680.6</ele>
        <time>2016-07-31T11:19:23Z</time>
      </trkpt>
      <trkpt lat="42.4276" lon="0.06822">
        <ele>679.4</ele>
        <time>2016-07-31T11:19:24Z</time>
      </trkpt>
      <trkpt lat="42.4276" lon="0.06826">
        <ele>678.2</ele>
        <time>2016-07-31T11:19:25Z</time>
      </trkpt>
      <trkpt lat="42.42762" lon="0.06832">
        <ele>676.1</ele>
        <time>2016-07-31T11:19:27Z</time>
      </trkpt>
      <trkpt lat="42.42765" lon="0.06834">
        <ele>674.8</ele>
        <time>2016-07-31T11:19:28Z</time>
      </trkpt>
      <trkpt lat="42.42769" lon="0.06836">
        <ele>673.1</ele>
        <time>2016-07-31T11:19:30Z</time>
      </trkpt>
      <trkpt lat="42.42771" lon="0.06842">
        <ele>671.3</ele>
        <time>2016-07-31T11:19:32Z</time>
      </trkpt>
      <trkpt lat="42.42771" lon="0.06846">
        <ele>670</ele>
        <time>2016-07-31T11:19:34Z</time>
      </trkpt>
      <trkpt lat="42.42775" lon="0.06849">
        <ele>668.3</ele>
        <time>2016-07-31T11:19:36Z</time>
      </trkpt>
      <trkpt lat="42.42779" lon="0.06853">
        <ele>666.1</ele>
        <time>2016-07-31T11:19:38Z</time>
      </trkpt>
      <trkpt lat="42.42781" lon="0.06856">
        <ele>664.8</ele>
        <time>2016-07-31T11:19:39Z</time>
      </trkpt>
      <trkpt lat="42.42785" lon="0.06857">
        <ele>663.2</ele>
        <time>2016-07-31T11:19:41Z</time>
      </trkpt>
      <trkpt lat="42.4279" lon="0.06856">
        <ele>662.3</ele>
        <time>2016-07-31T11:19:43Z</time>
      </trkpt>
      <trkpt lat="42.42793" lon="0.06854">
        <ele>662.2</ele>
        <time>2016-07-31T11:19:44Z</time>
      </trkpt>
      <trkpt lat="42.42795" lon="0.06852">
        <ele>662.3</ele>
        <time>2016-07-31T11:19:50Z</time>
      </trkpt>
      <trkpt lat="42.42799" lon="0.06854">
        <ele>661.2</ele>
        <time>2016-07-31T11:19:53Z</time>
      </trkpt>
      <trkpt lat="42.42802" lon="0.06857">
        <ele>659.9</ele>
        <time>2016-07-31T11:19:57Z</time>
      </trkpt>
      <trkpt lat="42.42807" lon="0.06858">
        <ele>658.9</ele>
        <time>2016-07-31T11:19:59Z</time>
      </trkpt>
      <trkpt lat="42.42811" lon="0.06857">
        <ele>658.7</ele>
        <time>2016-07-31T11:20:00Z</time>
      </trkpt>
      <trkpt lat="42.42814" lon="0.06854">
        <ele>658.7</ele>
        <time>2016-07-31T11:20:01Z</time>
      </trkpt>
      <trkpt lat="42.42817" lon="0.06851">
        <ele>658.9</ele>
        <time>2016-07-31T11:20:02Z</time>
      </trkpt>
      <trkpt lat="42.42819" lon="0.06849">
        <ele>659.1</ele>
        <time>2016-07-31T11:20:03Z</time>
      </trkpt>
      <trkpt lat="42.42822" lon="0.06846">
        <ele>659.2</ele>
        <time>2016-07-31T11:20:04Z</time>
      </trkpt>
      <trkpt lat="42.42825" lon="0.06843">
        <ele>659.2</ele>
        <time>2016-07-31T11:20:05Z</time>
      </trkpt>
      <trkpt lat="42.42828" lon="0.06841">
        <ele>659.2</ele>
        <time>2016-07-31T11:20:06Z</time>
      </trkpt>
      <trkpt lat="42.42832" lon="0.06838">
        <ele>659</ele>
        <time>2016-07-31T11:20:07Z</time>
      </trkpt>
      <trkpt lat="42.42835" lon="0.06836">
        <ele>658.8</ele>
        <time>2016-07-31T11:20:08Z</time>
      </trkpt>
      <trkpt lat="42.42838" lon="0.06834">
        <ele>658.7</ele>
        <time>2016-07-31T11:20:09Z</time>
      </trkpt>
      <trkpt lat="42.42841" lon="0.06831">
        <ele>658.7</ele>
        <time>2016-07-31T11:20:10Z</time>
      </trkpt>
      <trkpt lat="42.42843" lon="0.06828">
        <ele>659.1</ele>
        <time>2016-07-31T11:20:11Z</time>
      </trkpt>
      <trkpt lat="42.42843" lon="0.06823">
        <ele>659.8</ele>
        <time>2016-07-31T11:20:13Z</time>
      </trkpt>
      <trkpt lat="42.4284" lon="0.06821">
        <ele>660.8</ele>
        <time>2016-07-31T11:20:18Z</time>
      </trkpt>
      <trkpt lat="42.42841" lon="0.06825">
        <ele>660</ele>
        <time>2016-07-31T11:20:32Z</time>
      </trkpt>
      <trkpt lat="42.42837" lon="0.06829">
        <ele>659.8</ele>
        <time>2016-07-31T11:20:34Z</time>
      </trkpt>
      <trkpt lat="42.42835" lon="0.06831">
        <ele>659.9</ele>
        <time>2016-07-31T11:20:35Z</time>
      </trkpt>
      <trkpt lat="42.42832" lon="0.06834">
        <ele>659.8</ele>
        <time>2016-07-31T11:20:36Z</time>
      </trkpt>
      <trkpt lat="42.42829" lon="0.06837">
        <ele>659.7</ele>
        <time>2016-07-31T11:20:37Z</time>
      </trkpt>
      <trkpt lat="42.42826" lon="0.06841">
        <ele>659.5</ele>
        <time>2016-07-31T11:20:38Z</time>
      </trkpt>
      <trkpt lat="42.42823" lon="0.06845">
        <ele>659.2</ele>
        <time>2016-07-31T11:20:39Z</time>
      </trkpt>
      <trkpt lat="42.4282" lon="0.06849">
        <ele>658.9</ele>
        <time>2016-07-31T11:20:40Z</time>
      </trkpt>
      <trkpt lat="42.42818" lon="0.06852">
        <ele>658.7</ele>
        <time>2016-07-31T11:20:41Z</time>
      </trkpt>
      <trkpt lat="42.42815" lon="0.06854">
        <ele>658.6</ele>
        <time>2016-07-31T11:20:42Z</time>
      </trkpt>
      <trkpt lat="42.42811" lon="0.06855">
        <ele>658.9</ele>
        <time>2016-07-31T11:20:43Z</time>
      </trkpt>
      <trkpt lat="42.42808" lon="0.06855">
        <ele>659.4</ele>
        <time>2016-07-31T11:20:44Z</time>
      </trkpt>
      <trkpt lat="42.42805" lon="0.06855">
        <ele>660</ele>
        <time>2016-07-31T11:20:45Z</time>
      </trkpt>
      <trkpt lat="42.42802" lon="0.06855">
        <ele>660.5</ele>
        <time>2016-07-31T11:20:46Z</time>
      </trkpt>
      <trkpt lat="42.42799" lon="0.06855">
        <ele>660.9</ele>
        <time>2016-07-31T11:20:49Z</time>
      </trkpt>
      <trkpt lat="42.42796" lon="0.06856">
        <ele>661</ele>
        <time>2016-07-31T11:20:56Z</time>
      </trkpt>
      <trkpt lat="42.42799" lon="0.06856">
        <ele>660.7</ele>
        <time>2016-07-31T11:21:18Z</time>
      </trkpt>
      <trkpt lat="42.42804" lon="0.06856">
        <ele>659.8</ele>
        <time>2016-07-31T11:21:20Z</time>
      </trkpt>
      <trkpt lat="42.42807" lon="0.06856">
        <ele>659.3</ele>
        <time>2016-07-31T11:21:21Z</time>
      </trkpt>
      <trkpt lat="42.42811" lon="0.06855">
        <ele>658.9</ele>
        <time>2016-07-31T11:21:22Z</time>
      </trkpt>
      <trkpt lat="42.42814" lon="0.06853">
        <ele>658.9</ele>
        <time>2016-07-31T11:21:23Z</time>
      </trkpt>
      <trkpt lat="42.42817" lon="0.06851">
        <ele>659.1</ele>
        <time>2016-07-31T11:21:24Z</time>
      </trkpt>
      <trkpt lat="42.42819" lon="0.06847">
        <ele>659.5</ele>
        <time>2016-07-31T11:21:25Z</time>
      </trkpt>
      <trkpt lat="42.42821" lon="0.06844">
        <ele>659.9</ele>
        <time>2016-07-31T11:21:26Z</time>
      </trkpt>
      <trkpt lat="42.42823" lon="0.0684">
        <ele>660.2</ele>
        <time>2016-07-31T11:21:27Z</time>
      </trkpt>
      <trkpt lat="42.42826" lon="0.06837">
        <ele>660.4</ele>
        <time>2016-07-31T11:21:28Z</time>
      </trkpt>
      <trkpt lat="42.4283" lon="0.06834">
        <ele>660.3</ele>
        <time>2016-07-31T11:21:29Z</time>
      </trkpt>
      <trkpt lat="42.42833" lon="0.06831">
        <ele>660.3</ele>
        <time>2016-07-31T11:21:30Z</time>
      </trkpt>
      <trkpt lat="42.42836" lon="0.06828">
        <ele>660.3</ele>
        <time>2016-07-31T11:21:31Z</time>
      </trkpt>
      <trkpt lat="42.42839" lon="0.06824">
        <ele>660.5</ele>
        <time>2016-07-31T11:21:32Z</time>
      </trkpt>
      <trkpt lat="42.42841" lon="0.06819">
        <ele>660.9</ele>
        <time>2016-07-31T11:21:33Z</time>
      </trkpt>
      <trkpt lat="42.42843" lon="0.06816">
        <ele>661.3</ele>
        <time>2016-07-31T11:21:34Z</time>
      </trkpt>
      <trkpt lat="42.42844" lon="0.06813">
        <ele>661.6</ele>
        <time>2016-07-31T11:21:35Z</time>
      </trkpt>
      <trkpt lat="42.42846" lon="0.06809">
        <ele>661.8</ele>
        <time>2016-07-31T11:21:36Z</time>
      </trkpt>
      <trkpt lat="42.42848" lon="0.06806">
        <ele>661.8</ele>
        <time>2016-07-31T11:21:37Z</time>
      </trkpt>
      <trkpt lat="42.42851" lon="0.06803">
        <ele>661.8</ele>
        <time>2016-07-31T11:21:38Z</time>
      </trkpt>
      <trkpt lat="42.42853" lon="0.06801">
        <ele>661.9</ele>
        <time>2016-07-31T11:21:39Z</time>
      </trkpt>
      <trkpt lat="42.42856" lon="0.06794">
        <ele>662</ele>
        <time>2016-07-31T11:21:41Z</time>
      </trkpt>
      <trkpt lat="42.42859" lon="0.06791">
        <ele>661.9</ele>
        <time>2016-07-31T11:21:42Z</time>
      </trkpt>
      <trkpt lat="42.42862" lon="0.06788">
        <ele>661.4</ele>
        <time>2016-07-31T11:21:43Z</time>
      </trkpt>
      <trkpt lat="42.42864" lon="0.06785">
        <ele>661.1</ele>
        <time>2016-07-31T11:21:44Z</time>
      </trkpt>
      <trkpt lat="42.42866" lon="0.0678">
        <ele>660.8</ele>
        <time>2016-07-31T11:21:45Z</time>
      </trkpt>
      <trkpt lat="42.42868" lon="0.06775">
        <ele>660.7</ele>
        <time>2016-07-31T11:21:46Z</time>
      </trkpt>
      <trkpt lat="42.42869" lon="0.0677">
        <ele>660.7</ele>
        <time>2016-07-31T11:21:47Z</time>
      </trkpt>
      <trkpt lat="42.42869" lon="0.06765">
        <ele>660.8</ele>
        <time>2016-07-31T11:21:48Z</time>
      </trkpt>
      <trkpt lat="42.4287" lon="0.06761">
        <ele>660.9</ele>
        <time>2016-07-31T11:21:49Z</time>
      </trkpt>
      <trkpt lat="42.42871" lon="0.06757">
        <ele>660.9</ele>
        <time>2016-07-31T11:21:50Z</time>
      </trkpt>
      <trkpt lat="42.42872" lon="0.06752">
        <ele>660.7</ele>
        <time>2016-07-31T11:21:51Z</time>
      </trkpt>
      <trkpt lat="42.42875" lon="0.06748">
        <ele>660.3</ele>
        <time>2016-07-31T11:21:52Z</time>
      </trkpt>
      <trkpt lat="42.42877" lon="0.06744">
        <ele>660</ele>
        <time>2016-07-31T11:21:53Z</time>
      </trkpt>
      <trkpt lat="42.42878" lon="0.0674">
        <ele>659.9</ele>
        <time>2016-07-31T11:21:54Z</time>
      </trkpt>
      <trkpt lat="42.4288" lon="0.06736">
        <ele>659.9</ele>
        <time>2016-07-31T11:21:55Z</time>
      </trkpt>
      <trkpt lat="42.42881" lon="0.06731">
        <ele>659.9</ele>
        <time>2016-07-31T11:21:56Z</time>
      </trkpt>
      <trkpt lat="42.42882" lon="0.06726">
        <ele>659.9</ele>
        <time>2016-07-31T11:21:57Z</time>
      </trkpt>
      <trkpt lat="42.42883" lon="0.06722">
        <ele>660</ele>
        <time>2016-07-31T11:21:58Z</time>
      </trkpt>
      <trkpt lat="42.42883" lon="0.06717">
        <ele>660</ele>
        <time>2016-07-31T11:21:59Z</time>
      </trkpt>
      <trkpt lat="42.42883" lon="0.06714">
        <ele>660.2</ele>
        <time>2016-07-31T11:22:00Z</time>
      </trkpt>
      <trkpt lat="42.42883" lon="0.0671">
        <ele>660.3</ele>
        <time>2016-07-31T11:22:01Z</time>
      </trkpt>
      <trkpt lat="42.42882" lon="0.06704">
        <ele>659.9</ele>
        <time>2016-07-31T11:22:03Z</time>
      </trkpt>
      <trkpt lat="42.42881" lon="0.06698">
        <ele>659.3</ele>
        <time>2016-07-31T11:22:05Z</time>
      </trkpt>
      <trkpt lat="42.42879" lon="0.06693">
        <ele>658.7</ele>
        <time>2016-07-31T11:22:07Z</time>
      </trkpt>
      <trkpt lat="42.42877" lon="0.06686">
        <ele>658</ele>
        <time>2016-07-31T11:22:09Z</time>
      </trkpt>
      <trkpt lat="42.42876" lon="0.06683">
        <ele>657.7</ele>
        <time>2016-07-31T11:22:10Z</time>
      </trkpt>
      <trkpt lat="42.42873" lon="0.06678">
        <ele>657.9</ele>
        <time>2016-07-31T11:22:12Z</time>
      </trkpt>
      <trkpt lat="42.4287" lon="0.06673">
        <ele>658.6</ele>
        <time>2016-07-31T11:22:14Z</time>
      </trkpt>
      <trkpt lat="42.42867" lon="0.06667">
        <ele>658.7</ele>
        <time>2016-07-31T11:22:16Z</time>
      </trkpt>
      <trkpt lat="42.42866" lon="0.06663">
        <ele>658.8</ele>
        <time>2016-07-31T11:22:17Z</time>
      </trkpt>
      <trkpt lat="42.42864" lon="0.06659">
        <ele>659.1</ele>
        <time>2016-07-31T11:22:18Z</time>
      </trkpt>
      <trkpt lat="42.42862" lon="0.06654">
        <ele>659.6</ele>
        <time>2016-07-31T11:22:19Z</time>
      </trkpt>
      <trkpt lat="42.4286" lon="0.06651">
        <ele>660.1</ele>
        <time>2016-07-31T11:22:20Z</time>
      </trkpt>
      <trkpt lat="42.42858" lon="0.06647">
        <ele>661</ele>
        <time>2016-07-31T11:22:22Z</time>
      </trkpt>
      <trkpt lat="42.42856" lon="0.06644">
        <ele>661.9</ele>
        <time>2016-07-31T11:22:24Z</time>
      </trkpt>
      <trkpt lat="42.42854" lon="0.06641">
        <ele>662.3</ele>
        <time>2016-07-31T11:22:29Z</time>
      </trkpt>
      <trkpt lat="42.42854" lon="0.06637">
        <ele>661.7</ele>
        <time>2016-07-31T11:22:44Z</time>
      </trkpt>
      <trkpt lat="42.42856" lon="0.06634">
        <ele>660.3</ele>
        <time>2016-07-31T11:22:55Z</time>
      </trkpt>
      <trkpt lat="42.42859" lon="0.06632">
        <ele>658.4</ele>
        <time>2016-07-31T11:23:05Z</time>
      </trkpt>
      <trkpt lat="42.4286" lon="0.06628">
        <ele>657.2</ele>
        <time>2016-07-31T11:23:12Z</time>
      </trkpt>
      <trkpt lat="42.42862" lon="0.06624">
        <ele>655.9</ele>
        <time>2016-07-31T11:23:23Z</time>
      </trkpt>
      <trkpt lat="42.42862" lon="0.0662">
        <ele>655.3</ele>
        <time>2016-07-31T11:23:27Z</time>
      </trkpt>
      <trkpt lat="42.42864" lon="0.0662">
        <ele>653.6</ele>
        <time>2016-07-31T11:23:33Z</time>
      </trkpt>
      <trkpt lat="42.42867" lon="0.06623">
        <ele>652.6</ele>
        <time>2016-07-31T11:23:36Z</time>
      </trkpt>
      <trkpt lat="42.42869" lon="0.06626">
        <ele>651.9</ele>
        <time>2016-07-31T11:23:38Z</time>
      </trkpt>
      <trkpt lat="42.42871" lon="0.06631">
        <ele>651.4</ele>
        <time>2016-07-31T11:23:41Z</time>
      </trkpt>
      <trkpt lat="42.42874" lon="0.06628">
        <ele>649.3</ele>
        <time>2016-07-31T11:23:45Z</time>
      </trkpt>
      <trkpt lat="42.42874" lon="0.06624">
        <ele>648.2</ele>
        <time>2016-07-31T11:23:47Z</time>
      </trkpt>
      <trkpt lat="42.42872" lon="0.06617">
        <ele>648.4</ele>
        <time>2016-07-31T11:23:49Z</time>
      </trkpt>
      <trkpt lat="42.42871" lon="0.06613">
        <ele>648.4</ele>
        <time>2016-07-31T11:23:50Z</time>
      </trkpt>
      <trkpt lat="42.42869" lon="0.06608">
        <ele>649.1</ele>
        <time>2016-07-31T11:23:52Z</time>
      </trkpt>
      <trkpt lat="42.42866" lon="0.06604">
        <ele>650.5</ele>
        <time>2016-07-31T11:23:54Z</time>
      </trkpt>
      <trkpt lat="42.42863" lon="0.06602">
        <ele>651.5</ele>
        <time>2016-07-31T11:23:55Z</time>
      </trkpt>
      <trkpt lat="42.42861" lon="0.066">
        <ele>652.5</ele>
        <time>2016-07-31T11:23:56Z</time>
      </trkpt>
      <trkpt lat="42.42858" lon="0.06596">
        <ele>653.7</ele>
        <time>2016-07-31T11:23:58Z</time>
      </trkpt>
      <trkpt lat="42.42855" lon="0.0659">
        <ele>654.7</ele>
        <time>2016-07-31T11:24:00Z</time>
      </trkpt>
      <trkpt lat="42.42851" lon="0.06586">
        <ele>655.8</ele>
        <time>2016-07-31T11:24:02Z</time>
      </trkpt>
      <trkpt lat="42.42849" lon="0.06583">
        <ele>656.7</ele>
        <time>2016-07-31T11:24:08Z</time>
      </trkpt>
      <trkpt lat="42.42847" lon="0.06579">
        <ele>656.9</ele>
        <time>2016-07-31T11:24:13Z</time>
      </trkpt>
      <trkpt lat="42.42846" lon="0.06576">
        <ele>657.2</ele>
        <time>2016-07-31T11:24:17Z</time>
      </trkpt>
      <trkpt lat="42.42844" lon="0.06573">
        <ele>657.7</ele>
        <time>2016-07-31T11:24:21Z</time>
      </trkpt>
      <trkpt lat="42.42841" lon="0.06571">
        <ele>658.8</ele>
        <time>2016-07-31T11:24:25Z</time>
      </trkpt>
      <trkpt lat="42.42839" lon="0.06568">
        <ele>659.5</ele>
        <time>2016-07-31T11:24:29Z</time>
      </trkpt>
      <trkpt lat="42.42836" lon="0.06565">
        <ele>660.7</ele>
        <time>2016-07-31T11:24:33Z</time>
      </trkpt>
      <trkpt lat="42.42835" lon="0.06562">
        <ele>661</ele>
        <time>2016-07-31T11:24:41Z</time>
      </trkpt>
      <trkpt lat="42.42833" lon="0.06559">
        <ele>661</ele>
        <time>2016-07-31T11:24:44Z</time>
      </trkpt>
      <trkpt lat="42.42831" lon="0.06554">
        <ele>661.6</ele>
        <time>2016-07-31T11:24:47Z</time>
      </trkpt>
      <trkpt lat="42.42829" lon="0.06552">
        <ele>662.2</ele>
        <time>2016-07-31T11:24:50Z</time>
      </trkpt>
      <trkpt lat="42.42827" lon="0.06549">
        <ele>663</ele>
        <time>2016-07-31T11:24:56Z</time>
      </trkpt>
      <trkpt lat="42.42824" lon="0.06547">
        <ele>663.9</ele>
        <time>2016-07-31T11:24:59Z</time>
      </trkpt>
      <trkpt lat="42.42822" lon="0.06546">
        <ele>664.9</ele>
        <time>2016-07-31T11:25:02Z</time>
      </trkpt>
      <trkpt lat="42.42819" lon="0.06543">
        <ele>665.8</ele>
        <time>2016-07-31T11:25:05Z</time>
      </trkpt>
      <trkpt lat="42.42817" lon="0.0654">
        <ele>666.4</ele>
        <time>2016-07-31T11:25:10Z</time>
      </trkpt>
      <trkpt lat="42.42815" lon="0.06538">
        <ele>667.1</ele>
        <time>2016-07-31T11:25:15Z</time>
      </trkpt>
      <trkpt lat="42.42812" lon="0.06535">
        <ele>667.8</ele>
        <time>2016-07-31T11:25:19Z</time>
      </trkpt>
      <trkpt lat="42.42809" lon="0.06532">
        <ele>668.7</ele>
        <time>2016-07-31T11:25:23Z</time>
      </trkpt>
      <trkpt lat="42.42807" lon="0.06528">
        <ele>668.6</ele>
        <time>2016-07-31T11:25:27Z</time>
      </trkpt>
      <trkpt lat="42.42807" lon="0.06524">
        <ele>668</ele>
        <time>2016-07-31T11:25:30Z</time>
      </trkpt>
      <trkpt lat="42.42805" lon="0.06521">
        <ele>667.8</ele>
        <time>2016-07-31T11:25:34Z</time>
      </trkpt>
      <trkpt lat="42.42803" lon="0.06518">
        <ele>668.3</ele>
        <time>2016-07-31T11:25:39Z</time>
      </trkpt>
      <trkpt lat="42.42801" lon="0.06516">
        <ele>668.5</ele>
        <time>2016-07-31T11:25:44Z</time>
      </trkpt>
      <trkpt lat="42.428" lon="0.06512">
        <ele>667.9</ele>
        <time>2016-07-31T11:25:48Z</time>
      </trkpt>
      <trkpt lat="42.42799" lon="0.06508">
        <ele>667.3</ele>
        <time>2016-07-31T11:25:51Z</time>
      </trkpt>
      <trkpt lat="42.42798" lon="0.06504">
        <ele>666.4</ele>
        <time>2016-07-31T11:25:54Z</time>
      </trkpt>
      <trkpt lat="42.42798" lon="0.06499">
        <ele>665.5</ele>
        <time>2016-07-31T11:25:57Z</time>
      </trkpt>
      <trkpt lat="42.42798" lon="0.06494">
        <ele>664.1</ele>
        <time>2016-07-31T11:25:59Z</time>
      </trkpt>
      <trkpt lat="42.42798" lon="0.06487">
        <ele>662.3</ele>
        <time>2016-07-31T11:26:01Z</time>
      </trkpt>
      <trkpt lat="42.42799" lon="0.06481">
        <ele>660.2</ele>
        <time>2016-07-31T11:26:03Z</time>
      </trkpt>
      <trkpt lat="42.42799" lon="0.06477">
        <ele>659.1</ele>
        <time>2016-07-31T11:26:04Z</time>
      </trkpt>
      <trkpt lat="42.42799" lon="0.06472">
        <ele>658</ele>
        <time>2016-07-31T11:26:05Z</time>
      </trkpt>
      <trkpt lat="42.42799" lon="0.06468">
        <ele>656.9</ele>
        <time>2016-07-31T11:26:06Z</time>
      </trkpt>
      <trkpt lat="42.42798" lon="0.06464">
        <ele>655.9</ele>
        <time>2016-07-31T11:26:07Z</time>
      </trkpt>
      <trkpt lat="42.42798" lon="0.0646">
        <ele>654.9</ele>
        <time>2016-07-31T11:26:08Z</time>
      </trkpt>
      <trkpt lat="42.42798" lon="0.06456">
        <ele>654.1</ele>
        <time>2016-07-31T11:26:09Z</time>
      </trkpt>
      <trkpt lat="42.42798" lon="0.06452">
        <ele>653.5</ele>
        <time>2016-07-31T11:26:10Z</time>
      </trkpt>
      <trkpt lat="42.42798" lon="0.06445">
        <ele>652.4</ele>
        <time>2016-07-31T11:26:12Z</time>
      </trkpt>
      <trkpt lat="42.42798" lon="0.06441">
        <ele>651.8</ele>
        <time>2016-07-31T11:26:13Z</time>
      </trkpt>
      <trkpt lat="42.42798" lon="0.06437">
        <ele>651.2</ele>
        <time>2016-07-31T11:26:14Z</time>
      </trkpt>
      <trkpt lat="42.42798" lon="0.06433">
        <ele>650.5</ele>
        <time>2016-07-31T11:26:15Z</time>
      </trkpt>
      <trkpt lat="42.42798" lon="0.06429">
        <ele>649.8</ele>
        <time>2016-07-31T11:26:16Z</time>
      </trkpt>
      <trkpt lat="42.42799" lon="0.06425">
        <ele>649</ele>
        <time>2016-07-31T11:26:17Z</time>
      </trkpt>
      <trkpt lat="42.428" lon="0.06421">
        <ele>648.2</ele>
        <time>2016-07-31T11:26:18Z</time>
      </trkpt>
      <trkpt lat="42.428" lon="0.06417">
        <ele>647.5</ele>
        <time>2016-07-31T11:26:19Z</time>
      </trkpt>
      <trkpt lat="42.42801" lon="0.06413">
        <ele>646.8</ele>
        <time>2016-07-31T11:26:20Z</time>
      </trkpt>
      <trkpt lat="42.42802" lon="0.06409">
        <ele>646.1</ele>
        <time>2016-07-31T11:26:21Z</time>
      </trkpt>
      <trkpt lat="42.42802" lon="0.06405">
        <ele>645.4</ele>
        <time>2016-07-31T11:26:22Z</time>
      </trkpt>
      <trkpt lat="42.42803" lon="0.06402">
        <ele>644.8</ele>
        <time>2016-07-31T11:26:23Z</time>
      </trkpt>
      <trkpt lat="42.42803" lon="0.06398">
        <ele>644.2</ele>
        <time>2016-07-31T11:26:24Z</time>
      </trkpt>
      <trkpt lat="42.42804" lon="0.06394">
        <ele>643.6</ele>
        <time>2016-07-31T11:26:25Z</time>
      </trkpt>
      <trkpt lat="42.42804" lon="0.0639">
        <ele>643</ele>
        <time>2016-07-31T11:26:26Z</time>
      </trkpt>
      <trkpt lat="42.42803" lon="0.06386">
        <ele>642.4</ele>
        <time>2016-07-31T11:26:27Z</time>
      </trkpt>
      <trkpt lat="42.42803" lon="0.06382">
        <ele>641.8</ele>
        <time>2016-07-31T11:26:28Z</time>
      </trkpt>
      <trkpt lat="42.42802" lon="0.06378">
        <ele>641.2</ele>
        <time>2016-07-31T11:26:29Z</time>
      </trkpt>
      <trkpt lat="42.42802" lon="0.06374">
        <ele>640.7</ele>
        <time>2016-07-31T11:26:30Z</time>
      </trkpt>
      <trkpt lat="42.42802" lon="0.06369">
        <ele>640.6</ele>
        <time>2016-07-31T11:26:31Z</time>
      </trkpt>
      <trkpt lat="42.42803" lon="0.06365">
        <ele>640.4</ele>
        <time>2016-07-31T11:26:32Z</time>
      </trkpt>
      <trkpt lat="42.42803" lon="0.06361">
        <ele>640.3</ele>
        <time>2016-07-31T11:26:33Z</time>
      </trkpt>
      <trkpt lat="42.42803" lon="0.06356">
        <ele>640.2</ele>
        <time>2016-07-31T11:26:34Z</time>
      </trkpt>
      <trkpt lat="42.42804" lon="0.06352">
        <ele>640</ele>
        <time>2016-07-31T11:26:35Z</time>
      </trkpt>
      <trkpt lat="42.42804" lon="0.06348">
        <ele>639.9</ele>
        <time>2016-07-31T11:26:36Z</time>
      </trkpt>
      <trkpt lat="42.42804" lon="0.06343">
        <ele>639.8</ele>
        <time>2016-07-31T11:26:37Z</time>
      </trkpt>
      <trkpt lat="42.42803" lon="0.0634">
        <ele>639.7</ele>
        <time>2016-07-31T11:26:38Z</time>
      </trkpt>
      <trkpt lat="42.42802" lon="0.06336">
        <ele>639.6</ele>
        <time>2016-07-31T11:26:39Z</time>
      </trkpt>
      <trkpt lat="42.42801" lon="0.06333">
        <ele>639.5</ele>
        <time>2016-07-31T11:26:40Z</time>
      </trkpt>
      <trkpt lat="42.428" lon="0.06329">
        <ele>639.4</ele>
        <time>2016-07-31T11:26:41Z</time>
      </trkpt>
      <trkpt lat="42.42797" lon="0.06324">
        <ele>639.2</ele>
        <time>2016-07-31T11:26:43Z</time>
      </trkpt>
      <trkpt lat="42.42794" lon="0.0632">
        <ele>639</ele>
        <time>2016-07-31T11:26:45Z</time>
      </trkpt>
      <trkpt lat="42.42793" lon="0.06314">
        <ele>638.8</ele>
        <time>2016-07-31T11:26:47Z</time>
      </trkpt>
      <trkpt lat="42.42793" lon="0.0631">
        <ele>638.7</ele>
        <time>2016-07-31T11:26:48Z</time>
      </trkpt>
      <trkpt lat="42.42794" lon="0.06306">
        <ele>638.6</ele>
        <time>2016-07-31T11:26:49Z</time>
      </trkpt>
      <trkpt lat="42.42794" lon="0.06302">
        <ele>638.4</ele>
        <time>2016-07-31T11:26:50Z</time>
      </trkpt>
      <trkpt lat="42.42795" lon="0.06299">
        <ele>638.3</ele>
        <time>2016-07-31T11:26:51Z</time>
      </trkpt>
      <trkpt lat="42.42796" lon="0.06295">
        <ele>638.2</ele>
        <time>2016-07-31T11:26:52Z</time>
      </trkpt>
      <trkpt lat="42.42798" lon="0.0629">
        <ele>638.2</ele>
        <time>2016-07-31T11:26:54Z</time>
      </trkpt>
      <trkpt lat="42.428" lon="0.06284">
        <ele>638.4</ele>
        <time>2016-07-31T11:26:56Z</time>
      </trkpt>
      <trkpt lat="42.42802" lon="0.06277">
        <ele>638.6</ele>
        <time>2016-07-31T11:26:58Z</time>
      </trkpt>
      <trkpt lat="42.42802" lon="0.06273">
        <ele>638.7</ele>
        <time>2016-07-31T11:26:59Z</time>
      </trkpt>
      <trkpt lat="42.42803" lon="0.0627">
        <ele>638.8</ele>
        <time>2016-07-31T11:27:00Z</time>
      </trkpt>
      <trkpt lat="42.42804" lon="0.06266">
        <ele>639</ele>
        <time>2016-07-31T11:27:01Z</time>
      </trkpt>
      <trkpt lat="42.42805" lon="0.06262">
        <ele>639.1</ele>
        <time>2016-07-31T11:27:02Z</time>
      </trkpt>
      <trkpt lat="42.42805" lon="0.06259">
        <ele>639.2</ele>
        <time>2016-07-31T11:27:03Z</time>
      </trkpt>
      <trkpt lat="42.42805" lon="0.06255">
        <ele>639.3</ele>
        <time>2016-07-31T11:27:04Z</time>
      </trkpt>
      <trkpt lat="42.42805" lon="0.06251">
        <ele>639.4</ele>
        <time>2016-07-31T11:27:05Z</time>
      </trkpt>
      <trkpt lat="42.42804" lon="0.06247">
        <ele>639.5</ele>
        <time>2016-07-31T11:27:06Z</time>
      </trkpt>
      <trkpt lat="42.42803" lon="0.06243">
        <ele>639.5</ele>
        <time>2016-07-31T11:27:07Z</time>
      </trkpt>
      <trkpt lat="42.42802" lon="0.06239">
        <ele>639.5</ele>
        <time>2016-07-31T11:27:08Z</time>
      </trkpt>
      <trkpt lat="42.42802" lon="0.06234">
        <ele>639.6</ele>
        <time>2016-07-31T11:27:09Z</time>
      </trkpt>
      <trkpt lat="42.42801" lon="0.0623">
        <ele>639.7</ele>
        <time>2016-07-31T11:27:10Z</time>
      </trkpt>
      <trkpt lat="42.42801" lon="0.06225">
        <ele>639.8</ele>
        <time>2016-07-31T11:27:11Z</time>
      </trkpt>
      <trkpt lat="42.42802" lon="0.0622">
        <ele>640</ele>
        <time>2016-07-31T11:27:12Z</time>
      </trkpt>
      <trkpt lat="42.42803" lon="0.06215">
        <ele>640.2</ele>
        <time>2016-07-31T11:27:13Z</time>
      </trkpt>
      <trkpt lat="42.42804" lon="0.0621">
        <ele>640.4</ele>
        <time>2016-07-31T11:27:14Z</time>
      </trkpt>
      <trkpt lat="42.42804" lon="0.06206">
        <ele>640.9</ele>
        <time>2016-07-31T11:27:15Z</time>
      </trkpt>
      <trkpt lat="42.42805" lon="0.06201">
        <ele>641.6</ele>
        <time>2016-07-31T11:27:16Z</time>
      </trkpt>
      <trkpt lat="42.42806" lon="0.06196">
        <ele>642.5</ele>
        <time>2016-07-31T11:27:17Z</time>
      </trkpt>
      <trkpt lat="42.42808" lon="0.06193">
        <ele>643.2</ele>
        <time>2016-07-31T11:27:18Z</time>
      </trkpt>
      <trkpt lat="42.4281" lon="0.0619">
        <ele>643.8</ele>
        <time>2016-07-31T11:27:19Z</time>
      </trkpt>
      <trkpt lat="42.42813" lon="0.06189">
        <ele>644.3</ele>
        <time>2016-07-31T11:27:20Z</time>
      </trkpt>
      <trkpt lat="42.42817" lon="0.06189">
        <ele>644.7</ele>
        <time>2016-07-31T11:27:21Z</time>
      </trkpt>
      <trkpt lat="42.42821" lon="0.06192">
        <ele>644.9</ele>
        <time>2016-07-31T11:27:22Z</time>
      </trkpt>
      <trkpt lat="42.42826" lon="0.06195">
        <ele>645</ele>
        <time>2016-07-31T11:27:23Z</time>
      </trkpt>
      <trkpt lat="42.4283" lon="0.06198">
        <ele>645</ele>
        <time>2016-07-31T11:27:24Z</time>
      </trkpt>
      <trkpt lat="42.42835" lon="0.06202">
        <ele>645.1</ele>
        <time>2016-07-31T11:27:25Z</time>
      </trkpt>
      <trkpt lat="42.42839" lon="0.06205">
        <ele>645.1</ele>
        <time>2016-07-31T11:27:26Z</time>
      </trkpt>
      <trkpt lat="42.42843" lon="0.06209">
        <ele>645.2</ele>
        <time>2016-07-31T11:27:27Z</time>
      </trkpt>
      <trkpt lat="42.42848" lon="0.06212">
        <ele>645.4</ele>
        <time>2016-07-31T11:27:28Z</time>
      </trkpt>
      <trkpt lat="42.42852" lon="0.06215">
        <ele>645.6</ele>
        <time>2016-07-31T11:27:29Z</time>
      </trkpt>
      <trkpt lat="42.42855" lon="0.06218">
        <ele>645.8</ele>
        <time>2016-07-31T11:27:30Z</time>
      </trkpt>
      <trkpt lat="42.42859" lon="0.06221">
        <ele>645.9</ele>
        <time>2016-07-31T11:27:31Z</time>
      </trkpt>
      <trkpt lat="42.42862" lon="0.06224">
        <ele>646</ele>
        <time>2016-07-31T11:27:32Z</time>
      </trkpt>
      <trkpt lat="42.42866" lon="0.06227">
        <ele>646.1</ele>
        <time>2016-07-31T11:27:33Z</time>
      </trkpt>
      <trkpt lat="42.42869" lon="0.0623">
        <ele>646.1</ele>
        <time>2016-07-31T11:27:34Z</time>
      </trkpt>
      <trkpt lat="42.42871" lon="0.06233">
        <ele>646</ele>
        <time>2016-07-31T11:27:35Z</time>
      </trkpt>
      <trkpt lat="42.42873" lon="0.06236">
        <ele>645.8</ele>
        <time>2016-07-31T11:27:36Z</time>
      </trkpt>
      <trkpt lat="42.42874" lon="0.0624">
        <ele>645.6</ele>
        <time>2016-07-31T11:27:37Z</time>
      </trkpt>
      <trkpt lat="42.42877" lon="0.06246">
        <ele>645.1</ele>
        <time>2016-07-31T11:27:39Z</time>
      </trkpt>
      <trkpt lat="42.42878" lon="0.06252">
        <ele>644.6</ele>
        <time>2016-07-31T11:27:41Z</time>
      </trkpt>
      <trkpt lat="42.4288" lon="0.06257">
        <ele>644.1</ele>
        <time>2016-07-31T11:27:43Z</time>
      </trkpt>
      <trkpt lat="42.42881" lon="0.06263">
        <ele>643.6</ele>
        <time>2016-07-31T11:27:45Z</time>
      </trkpt>
      <trkpt lat="42.42881" lon="0.06268">
        <ele>643.1</ele>
        <time>2016-07-31T11:27:47Z</time>
      </trkpt>
      <trkpt lat="42.42882" lon="0.06274">
        <ele>642.6</ele>
        <time>2016-07-31T11:27:49Z</time>
      </trkpt>
      <trkpt lat="42.42882" lon="0.06279">
        <ele>642</ele>
        <time>2016-07-31T11:27:51Z</time>
      </trkpt>
      <trkpt lat="42.42881" lon="0.06284">
        <ele>641.5</ele>
        <time>2016-07-31T11:27:53Z</time>
      </trkpt>
      <trkpt lat="42.42881" lon="0.0629">
        <ele>640.9</ele>
        <time>2016-07-31T11:27:55Z</time>
      </trkpt>
      <trkpt lat="42.42881" lon="0.06295">
        <ele>640.7</ele>
        <time>2016-07-31T11:27:57Z</time>
      </trkpt>
      <trkpt lat="42.4288" lon="0.063">
        <ele>640.6</ele>
        <time>2016-07-31T11:27:59Z</time>
      </trkpt>
      <trkpt lat="42.4288" lon="0.06305">
        <ele>640.5</ele>
        <time>2016-07-31T11:28:01Z</time>
      </trkpt>
      <trkpt lat="42.42881" lon="0.0631">
        <ele>640.6</ele>
        <time>2016-07-31T11:28:03Z</time>
      </trkpt>
      <trkpt lat="42.4288" lon="0.06315">
        <ele>640.4</ele>
        <time>2016-07-31T11:28:05Z</time>
      </trkpt>
      <trkpt lat="42.42879" lon="0.0632">
        <ele>640.4</ele>
        <time>2016-07-31T11:28:07Z</time>
      </trkpt>
      <trkpt lat="42.4288" lon="0.06324">
        <ele>640.4</ele>
        <time>2016-07-31T11:28:09Z</time>
      </trkpt>
      <trkpt lat="42.4288" lon="0.06329">
        <ele>640.4</ele>
        <time>2016-07-31T11:28:11Z</time>
      </trkpt>
      <trkpt lat="42.4288" lon="0.06334">
        <ele>640.4</ele>
        <time>2016-07-31T11:28:13Z</time>
      </trkpt>
      <trkpt lat="42.4288" lon="0.06339">
        <ele>640.3</ele>
        <time>2016-07-31T11:28:15Z</time>
      </trkpt>
      <trkpt lat="42.4288" lon="0.06344">
        <ele>640.4</ele>
        <time>2016-07-31T11:28:17Z</time>
      </trkpt>
      <trkpt lat="42.4288" lon="0.0635">
        <ele>640.5</ele>
        <time>2016-07-31T11:28:19Z</time>
      </trkpt>
      <trkpt lat="42.42881" lon="0.06355">
        <ele>640.7</ele>
        <time>2016-07-31T11:28:21Z</time>
      </trkpt>
      <trkpt lat="42.42883" lon="0.06359">
        <ele>641.1</ele>
        <time>2016-07-31T11:28:23Z</time>
      </trkpt>
      <trkpt lat="42.42885" lon="0.06364">
        <ele>641.5</ele>
        <time>2016-07-31T11:28:25Z</time>
      </trkpt>
      <trkpt lat="42.42886" lon="0.06369">
        <ele>641.9</ele>
        <time>2016-07-31T11:28:27Z</time>
      </trkpt>
      <trkpt lat="42.42888" lon="0.06374">
        <ele>642.3</ele>
        <time>2016-07-31T11:28:29Z</time>
      </trkpt>
      <trkpt lat="42.42889" lon="0.06379">
        <ele>642.6</ele>
        <time>2016-07-31T11:28:31Z</time>
      </trkpt>
      <trkpt lat="42.42891" lon="0.06383">
        <ele>643</ele>
        <time>2016-07-31T11:28:33Z</time>
      </trkpt>
      <trkpt lat="42.42893" lon="0.06386">
        <ele>643.6</ele>
        <time>2016-07-31T11:28:35Z</time>
      </trkpt>
      <trkpt lat="42.42896" lon="0.0639">
        <ele>644.3</ele>
        <time>2016-07-31T11:28:37Z</time>
      </trkpt>
      <trkpt lat="42.42899" lon="0.06393">
        <ele>645.1</ele>
        <time>2016-07-31T11:28:39Z</time>
      </trkpt>
      <trkpt lat="42.42902" lon="0.06397">
        <ele>645.8</ele>
        <time>2016-07-31T11:28:41Z</time>
      </trkpt>
      <trkpt lat="42.42905" lon="0.06401">
        <ele>646.5</ele>
        <time>2016-07-31T11:28:43Z</time>
      </trkpt>
      <trkpt lat="42.42907" lon="0.06404">
        <ele>647.1</ele>
        <time>2016-07-31T11:28:45Z</time>
      </trkpt>
      <trkpt lat="42.42909" lon="0.06407">
        <ele>647.6</ele>
        <time>2016-07-31T11:28:47Z</time>
      </trkpt>
      <trkpt lat="42.42911" lon="0.0641">
        <ele>648.1</ele>
        <time>2016-07-31T11:28:49Z</time>
      </trkpt>
      <trkpt lat="42.42913" lon="0.06414">
        <ele>648.6</ele>
        <time>2016-07-31T11:28:51Z</time>
      </trkpt>
      <trkpt lat="42.42915" lon="0.06419">
        <ele>649.1</ele>
        <time>2016-07-31T11:28:53Z</time>
      </trkpt>
      <trkpt lat="42.42917" lon="0.06423">
        <ele>649.4</ele>
        <time>2016-07-31T11:28:55Z</time>
      </trkpt>
      <trkpt lat="42.42918" lon="0.06427">
        <ele>649.9</ele>
        <time>2016-07-31T11:28:57Z</time>
      </trkpt>
      <trkpt lat="42.4292" lon="0.06431">
        <ele>650.3</ele>
        <time>2016-07-31T11:28:59Z</time>
      </trkpt>
      <trkpt lat="42.42922" lon="0.06435">
        <ele>650.8</ele>
        <time>2016-07-31T11:29:01Z</time>
      </trkpt>
      <trkpt lat="42.42924" lon="0.06439">
        <ele>651.4</ele>
        <time>2016-07-31T11:29:03Z</time>
      </trkpt>
      <trkpt lat="42.42926" lon="0.06443">
        <ele>651.9</ele>
        <time>2016-07-31T11:29:05Z</time>
      </trkpt>
      <trkpt lat="42.42929" lon="0.06446">
        <ele>652.6</ele>
        <time>2016-07-31T11:29:07Z</time>
      </trkpt>
      <trkpt lat="42.42932" lon="0.06449">
        <ele>653.4</ele>
        <time>2016-07-31T11:29:09Z</time>
      </trkpt>
      <trkpt lat="42.42935" lon="0.06451">
        <ele>654.3</ele>
        <time>2016-07-31T11:29:11Z</time>
      </trkpt>
      <trkpt lat="42.42938" lon="0.06454">
        <ele>655.1</ele>
        <time>2016-07-31T11:29:13Z</time>
      </trkpt>
      <trkpt lat="42.42941" lon="0.06456">
        <ele>655.9</ele>
        <time>2016-07-31T11:29:15Z</time>
      </trkpt>
      <trkpt lat="42.42944" lon="0.06458">
        <ele>656.8</ele>
        <time>2016-07-31T11:29:17Z</time>
      </trkpt>
      <trkpt lat="42.42947" lon="0.06461">
        <ele>657.5</ele>
        <time>2016-07-31T11:29:19Z</time>
      </trkpt>
      <trkpt lat="42.4295" lon="0.06462">
        <ele>658.2</ele>
        <time>2016-07-31T11:29:21Z</time>
      </trkpt>
      <trkpt lat="42.42953" lon="0.06464">
        <ele>658.9</ele>
        <time>2016-07-31T11:29:23Z</time>
      </trkpt>
      <trkpt lat="42.42956" lon="0.06464">
        <ele>659.6</ele>
        <time>2016-07-31T11:29:25Z</time>
      </trkpt>
      <trkpt lat="42.42958" lon="0.06466">
        <ele>660.2</ele>
        <time>2016-07-31T11:29:27Z</time>
      </trkpt>
      <trkpt lat="42.42961" lon="0.06468">
        <ele>660.7</ele>
        <time>2016-07-31T11:29:29Z</time>
      </trkpt>
      <trkpt lat="42.42964" lon="0.0647">
        <ele>661.2</ele>
        <time>2016-07-31T11:29:31Z</time>
      </trkpt>
      <trkpt lat="42.42967" lon="0.06472">
        <ele>661.9</ele>
        <time>2016-07-31T11:29:33Z</time>
      </trkpt>
      <trkpt lat="42.4297" lon="0.06474">
        <ele>662.5</ele>
        <time>2016-07-31T11:29:35Z</time>
      </trkpt>
      <trkpt lat="42.42972" lon="0.06477">
        <ele>662.9</ele>
        <time>2016-07-31T11:29:37Z</time>
      </trkpt>
      <trkpt lat="42.42972" lon="0.06482">
        <ele>662.6</ele>
        <time>2016-07-31T11:29:39Z</time>
      </trkpt>
      <trkpt lat="42.42973" lon="0.06487">
        <ele>662.4</ele>
        <time>2016-07-31T11:29:41Z</time>
      </trkpt>
      <trkpt lat="42.42973" lon="0.06492">
        <ele>662.2</ele>
        <time>2016-07-31T11:29:43Z</time>
      </trkpt>
      <trkpt lat="42.42974" lon="0.06497">
        <ele>662</ele>
        <time>2016-07-31T11:29:45Z</time>
      </trkpt>
      <trkpt lat="42.42974" lon="0.06501">
        <ele>661.7</ele>
        <time>2016-07-31T11:29:47Z</time>
      </trkpt>
      <trkpt lat="42.42974" lon="0.06506">
        <ele>661.5</ele>
        <time>2016-07-31T11:29:49Z</time>
      </trkpt>
      <trkpt lat="42.42975" lon="0.06511">
        <ele>661.5</ele>
        <time>2016-07-31T11:29:51Z</time>
      </trkpt>
      <trkpt lat="42.42975" lon="0.06516">
        <ele>661.2</ele>
        <time>2016-07-31T11:29:53Z</time>
      </trkpt>
      <trkpt lat="42.42976" lon="0.06521">
        <ele>661.1</ele>
        <time>2016-07-31T11:29:55Z</time>
      </trkpt>
      <trkpt lat="42.42977" lon="0.06526">
        <ele>661.3</ele>
        <time>2016-07-31T11:29:57Z</time>
      </trkpt>
      <trkpt lat="42.42978" lon="0.06531">
        <ele>661.3</ele>
        <time>2016-07-31T11:29:59Z</time>
      </trkpt>
      <trkpt lat="42.42978" lon="0.06536">
        <ele>661.2</ele>
        <time>2016-07-31T11:30:01Z</time>
      </trkpt>
      <trkpt lat="42.42979" lon="0.06542">
        <ele>661.3</ele>
        <time>2016-07-31T11:30:03Z</time>
      </trkpt>
      <trkpt lat="42.4298" lon="0.06548">
        <ele>661.4</ele>
        <time>2016-07-31T11:30:05Z</time>
      </trkpt>
      <trkpt lat="42.4298" lon="0.06555">
        <ele>661.2</ele>
        <time>2016-07-31T11:30:07Z</time>
      </trkpt>
      <trkpt lat="42.42981" lon="0.06559">
        <ele>661</ele>
        <time>2016-07-31T11:30:08Z</time>
      </trkpt>
      <trkpt lat="42.42981" lon="0.06563">
        <ele>661</ele>
        <time>2016-07-31T11:30:09Z</time>
      </trkpt>
      <trkpt lat="42.42981" lon="0.06567">
        <ele>660.9</ele>
        <time>2016-07-31T11:30:10Z</time>
      </trkpt>
      <trkpt lat="42.42981" lon="0.0657">
        <ele>660.8</ele>
        <time>2016-07-31T11:30:11Z</time>
      </trkpt>
      <trkpt lat="42.42981" lon="0.06574">
        <ele>660.6</ele>
        <time>2016-07-31T11:30:12Z</time>
      </trkpt>
      <trkpt lat="42.42981" lon="0.06578">
        <ele>660.4</ele>
        <time>2016-07-31T11:30:13Z</time>
      </trkpt>
      <trkpt lat="42.42981" lon="0.06585">
        <ele>659.9</ele>
        <time>2016-07-31T11:30:15Z</time>
      </trkpt>
      <trkpt lat="42.42981" lon="0.06589">
        <ele>659.7</ele>
        <time>2016-07-31T11:30:16Z</time>
      </trkpt>
      <trkpt lat="42.4298" lon="0.06596">
        <ele>659.3</ele>
        <time>2016-07-31T11:30:18Z</time>
      </trkpt>
      <trkpt lat="42.42981" lon="0.06603">
        <ele>659</ele>
        <time>2016-07-31T11:30:20Z</time>
      </trkpt>
      <trkpt lat="42.42981" lon="0.0661">
        <ele>658.7</ele>
        <time>2016-07-31T11:30:22Z</time>
      </trkpt>
      <trkpt lat="42.4298" lon="0.06617">
        <ele>658.3</ele>
        <time>2016-07-31T11:30:24Z</time>
      </trkpt>
      <trkpt lat="42.42981" lon="0.06623">
        <ele>658.1</ele>
        <time>2016-07-31T11:30:26Z</time>
      </trkpt>
      <trkpt lat="42.42981" lon="0.0663">
        <ele>658.2</ele>
        <time>2016-07-31T11:30:28Z</time>
      </trkpt>
      <trkpt lat="42.42982" lon="0.06637">
        <ele>658.7</ele>
        <time>2016-07-31T11:30:30Z</time>
      </trkpt>
      <trkpt lat="42.42983" lon="0.06643">
        <ele>659.3</ele>
        <time>2016-07-31T11:30:32Z</time>
      </trkpt>
      <trkpt lat="42.42985" lon="0.06649">
        <ele>660.2</ele>
        <time>2016-07-31T11:30:34Z</time>
      </trkpt>
      <trkpt lat="42.42987" lon="0.06656">
        <ele>660.9</ele>
        <time>2016-07-31T11:30:36Z</time>
      </trkpt>
      <trkpt lat="42.42988" lon="0.06662">
        <ele>661.8</ele>
        <time>2016-07-31T11:30:38Z</time>
      </trkpt>
      <trkpt lat="42.4299" lon="0.06669">
        <ele>662.5</ele>
        <time>2016-07-31T11:30:40Z</time>
      </trkpt>
      <trkpt lat="42.42991" lon="0.06676">
        <ele>663.1</ele>
        <time>2016-07-31T11:30:42Z</time>
      </trkpt>
      <trkpt lat="42.42994" lon="0.06682">
        <ele>664.2</ele>
        <time>2016-07-31T11:30:44Z</time>
      </trkpt>
      <trkpt lat="42.42995" lon="0.06685">
        <ele>664.9</ele>
        <time>2016-07-31T11:30:45Z</time>
      </trkpt>
      <trkpt lat="42.42998" lon="0.06691">
        <ele>666.4</ele>
        <time>2016-07-31T11:30:47Z</time>
      </trkpt>
      <trkpt lat="42.43002" lon="0.06696">
        <ele>668.1</ele>
        <time>2016-07-31T11:30:49Z</time>
      </trkpt>
      <trkpt lat="42.43006" lon="0.067">
        <ele>670</ele>
        <time>2016-07-31T11:30:51Z</time>
      </trkpt>
      <trkpt lat="42.4301" lon="0.06705">
        <ele>671.9</ele>
        <time>2016-07-31T11:30:53Z</time>
      </trkpt>
      <trkpt lat="42.43012" lon="0.06711">
        <ele>673.1</ele>
        <time>2016-07-31T11:30:55Z</time>
      </trkpt>
      <trkpt lat="42.43014" lon="0.06717">
        <ele>674</ele>
        <time>2016-07-31T11:30:57Z</time>
      </trkpt>
      <trkpt lat="42.43016" lon="0.06724">
        <ele>674.7</ele>
        <time>2016-07-31T11:30:59Z</time>
      </trkpt>
      <trkpt lat="42.43017" lon="0.06728">
        <ele>675</ele>
        <time>2016-07-31T11:31:00Z</time>
      </trkpt>
      <trkpt lat="42.43018" lon="0.06731">
        <ele>675.4</ele>
        <time>2016-07-31T11:31:01Z</time>
      </trkpt>
      <trkpt lat="42.43019" lon="0.06735">
        <ele>675.8</ele>
        <time>2016-07-31T11:31:02Z</time>
      </trkpt>
      <trkpt lat="42.4302" lon="0.06738">
        <ele>676.2</ele>
        <time>2016-07-31T11:31:03Z</time>
      </trkpt>
      <trkpt lat="42.43021" lon="0.06743">
        <ele>676.5</ele>
        <time>2016-07-31T11:31:04Z</time>
      </trkpt>
      <trkpt lat="42.43022" lon="0.06747">
        <ele>676.7</ele>
        <time>2016-07-31T11:31:05Z</time>
      </trkpt>
      <trkpt lat="42.43023" lon="0.06751">
        <ele>676.9</ele>
        <time>2016-07-31T11:31:06Z</time>
      </trkpt>
      <trkpt lat="42.43023" lon="0.06756">
        <ele>677</ele>
        <time>2016-07-31T11:31:07Z</time>
      </trkpt>
      <trkpt lat="42.43024" lon="0.06761">
        <ele>677.2</ele>
        <time>2016-07-31T11:31:08Z</time>
      </trkpt>
      <trkpt lat="42.43025" lon="0.06766">
        <ele>677.4</ele>
        <time>2016-07-31T11:31:09Z</time>
      </trkpt>
      <trkpt lat="42.43025" lon="0.06771">
        <ele>677.3</ele>
        <time>2016-07-31T11:31:10Z</time>
      </trkpt>
      <trkpt lat="42.43025" lon="0.06776">
        <ele>677.1</ele>
        <time>2016-07-31T11:31:11Z</time>
      </trkpt>
      <trkpt lat="42.43025" lon="0.06781">
        <ele>676.8</ele>
        <time>2016-07-31T11:31:12Z</time>
      </trkpt>
      <trkpt lat="42.43025" lon="0.06786">
        <ele>676.4</ele>
        <time>2016-07-31T11:31:13Z</time>
      </trkpt>
      <trkpt lat="42.43024" lon="0.06791">
        <ele>676</ele>
        <time>2016-07-31T11:31:14Z</time>
      </trkpt>
      <trkpt lat="42.43023" lon="0.06796">
        <ele>675.6</ele>
        <time>2016-07-31T11:31:15Z</time>
      </trkpt>
      <trkpt lat="42.43022" lon="0.06801">
        <ele>675.2</ele>
        <time>2016-07-31T11:31:16Z</time>
      </trkpt>
      <trkpt lat="42.43021" lon="0.06806">
        <ele>674.7</ele>
        <time>2016-07-31T11:31:17Z</time>
      </trkpt>
      <trkpt lat="42.4302" lon="0.06811">
        <ele>674.2</ele>
        <time>2016-07-31T11:31:18Z</time>
      </trkpt>
      <trkpt lat="42.43019" lon="0.06816">
        <ele>673.7</ele>
        <time>2016-07-31T11:31:19Z</time>
      </trkpt>
      <trkpt lat="42.43018" lon="0.06821">
        <ele>673.2</ele>
        <time>2016-07-31T11:31:20Z</time>
      </trkpt>
      <trkpt lat="42.43017" lon="0.06825">
        <ele>672.7</ele>
        <time>2016-07-31T11:31:21Z</time>
      </trkpt>
      <trkpt lat="42.43016" lon="0.0683">
        <ele>672.2</ele>
        <time>2016-07-31T11:31:22Z</time>
      </trkpt>
      <trkpt lat="42.43015" lon="0.06833">
        <ele>671.7</ele>
        <time>2016-07-31T11:31:23Z</time>
      </trkpt>
      <trkpt lat="42.43014" lon="0.06837">
        <ele>671.2</ele>
        <time>2016-07-31T11:31:24Z</time>
      </trkpt>
      <trkpt lat="42.43012" lon="0.06841">
        <ele>670.7</ele>
        <time>2016-07-31T11:31:25Z</time>
      </trkpt>
      <trkpt lat="42.43011" lon="0.06845">
        <ele>670.2</ele>
        <time>2016-07-31T11:31:26Z</time>
      </trkpt>
      <trkpt lat="42.4301" lon="0.06851">
        <ele>669.4</ele>
        <time>2016-07-31T11:31:28Z</time>
      </trkpt>
      <trkpt lat="42.4301" lon="0.06856">
        <ele>669.7</ele>
        <time>2016-07-31T11:31:30Z</time>
      </trkpt>
      <trkpt lat="42.43014" lon="0.06855">
        <ele>671.3</ele>
        <time>2016-07-31T11:31:32Z</time>
      </trkpt>
      <trkpt lat="42.43017" lon="0.0685">
        <ele>672.8</ele>
        <time>2016-07-31T11:31:34Z</time>
      </trkpt>
      <trkpt lat="42.4302" lon="0.06844">
        <ele>673.9</ele>
        <time>2016-07-31T11:31:36Z</time>
      </trkpt>
      <trkpt lat="42.43021" lon="0.06838">
        <ele>674.7</ele>
        <time>2016-07-31T11:31:38Z</time>
      </trkpt>
      <trkpt lat="42.43023" lon="0.06831">
        <ele>675.4</ele>
        <time>2016-07-31T11:31:40Z</time>
      </trkpt>
      <trkpt lat="42.43025" lon="0.06825">
        <ele>676.2</ele>
        <time>2016-07-31T11:31:42Z</time>
      </trkpt>
      <trkpt lat="42.43027" lon="0.0682">
        <ele>677.1</ele>
        <time>2016-07-31T11:31:44Z</time>
      </trkpt>
      <trkpt lat="42.43029" lon="0.06814">
        <ele>678.1</ele>
        <time>2016-07-31T11:31:46Z</time>
      </trkpt>
      <trkpt lat="42.43032" lon="0.06809">
        <ele>679.4</ele>
        <time>2016-07-31T11:31:48Z</time>
      </trkpt>
      <trkpt lat="42.43036" lon="0.0681">
        <ele>681.2</ele>
        <time>2016-07-31T11:31:50Z</time>
      </trkpt>
      <trkpt lat="42.43037" lon="0.06817">
        <ele>681.6</ele>
        <time>2016-07-31T11:31:52Z</time>
      </trkpt>
      <trkpt lat="42.43036" lon="0.06821">
        <ele>681.2</ele>
        <time>2016-07-31T11:31:53Z</time>
      </trkpt>
      <trkpt lat="42.43034" lon="0.06825">
        <ele>680.5</ele>
        <time>2016-07-31T11:31:54Z</time>
      </trkpt>
      <trkpt lat="42.43032" lon="0.06829">
        <ele>679.8</ele>
        <time>2016-07-31T11:31:55Z</time>
      </trkpt>
      <trkpt lat="42.43031" lon="0.06832">
        <ele>679.1</ele>
        <time>2016-07-31T11:31:56Z</time>
      </trkpt>
      <trkpt lat="42.4303" lon="0.06836">
        <ele>678.6</ele>
        <time>2016-07-31T11:31:57Z</time>
      </trkpt>
      <trkpt lat="42.43029" lon="0.0684">
        <ele>678.2</ele>
        <time>2016-07-31T11:31:58Z</time>
      </trkpt>
      <trkpt lat="42.43028" lon="0.06847">
        <ele>677.7</ele>
        <time>2016-07-31T11:32:00Z</time>
      </trkpt>
      <trkpt lat="42.43027" lon="0.06854">
        <ele>677.4</ele>
        <time>2016-07-31T11:32:02Z</time>
      </trkpt>
      <trkpt lat="42.43028" lon="0.06861">
        <ele>677.5</ele>
        <time>2016-07-31T11:32:04Z</time>
      </trkpt>
      <trkpt lat="42.43028" lon="0.06868">
        <ele>677.9</ele>
        <time>2016-07-31T11:32:06Z</time>
      </trkpt>
      <trkpt lat="42.43029" lon="0.06874">
        <ele>678.3</ele>
        <time>2016-07-31T11:32:08Z</time>
      </trkpt>
      <trkpt lat="42.4303" lon="0.06881">
        <ele>679.2</ele>
        <time>2016-07-31T11:32:10Z</time>
      </trkpt>
      <trkpt lat="42.43031" lon="0.06888">
        <ele>680.2</ele>
        <time>2016-07-31T11:32:12Z</time>
      </trkpt>
      <trkpt lat="42.43032" lon="0.06895">
        <ele>681.1</ele>
        <time>2016-07-31T11:32:14Z</time>
      </trkpt>
      <trkpt lat="42.43032" lon="0.06899">
        <ele>681.6</ele>
        <time>2016-07-31T11:32:15Z</time>
      </trkpt>
      <trkpt lat="42.43033" lon="0.06903">
        <ele>682.1</ele>
        <time>2016-07-31T11:32:16Z</time>
      </trkpt>
      <trkpt lat="42.43033" lon="0.06909">
        <ele>682.9</ele>
        <time>2016-07-31T11:32:18Z</time>
      </trkpt>
      <trkpt lat="42.43033" lon="0.06914">
        <ele>683.4</ele>
        <time>2016-07-31T11:32:20Z</time>
      </trkpt>
      <trkpt lat="42.43034" lon="0.06919">
        <ele>684.1</ele>
        <time>2016-07-31T11:32:22Z</time>
      </trkpt>
      <trkpt lat="42.43037" lon="0.06921">
        <ele>685.6</ele>
        <time>2016-07-31T11:32:24Z</time>
      </trkpt>
      <trkpt lat="42.43041" lon="0.0692">
        <ele>687.2</ele>
        <time>2016-07-31T11:32:26Z</time>
      </trkpt>
      <trkpt lat="42.43044" lon="0.06916">
        <ele>687.9</ele>
        <time>2016-07-31T11:32:28Z</time>
      </trkpt>
      <trkpt lat="42.43045" lon="0.06911">
        <ele>688.1</ele>
        <time>2016-07-31T11:32:30Z</time>
      </trkpt>
      <trkpt lat="42.43046" lon="0.06906">
        <ele>688</ele>
        <time>2016-07-31T11:32:32Z</time>
      </trkpt>
      <trkpt lat="42.43047" lon="0.06901">
        <ele>687.7</ele>
        <time>2016-07-31T11:32:34Z</time>
      </trkpt>
      <trkpt lat="42.43047" lon="0.06895">
        <ele>687.5</ele>
        <time>2016-07-31T11:32:36Z</time>
      </trkpt>
      <trkpt lat="42.43048" lon="0.0689">
        <ele>687.3</ele>
        <time>2016-07-31T11:32:38Z</time>
      </trkpt>
      <trkpt lat="42.43047" lon="0.06885">
        <ele>686.9</ele>
        <time>2016-07-31T11:32:40Z</time>
      </trkpt>
      <trkpt lat="42.43047" lon="0.0688">
        <ele>686.4</ele>
        <time>2016-07-31T11:32:42Z</time>
      </trkpt>
      <trkpt lat="42.43047" lon="0.06875">
        <ele>686</ele>
        <time>2016-07-31T11:32:44Z</time>
      </trkpt>
      <trkpt lat="42.43047" lon="0.0687">
        <ele>686.1</ele>
        <time>2016-07-31T11:32:46Z</time>
      </trkpt>
      <trkpt lat="42.43047" lon="0.06866">
        <ele>686.2</ele>
        <time>2016-07-31T11:32:48Z</time>
      </trkpt>
      <trkpt lat="42.43048" lon="0.0686">
        <ele>686.6</ele>
        <time>2016-07-31T11:32:50Z</time>
      </trkpt>
      <trkpt lat="42.4305" lon="0.06856">
        <ele>687.3</ele>
        <time>2016-07-31T11:32:52Z</time>
      </trkpt>
      <trkpt lat="42.43052" lon="0.06853">
        <ele>688.1</ele>
        <time>2016-07-31T11:32:54Z</time>
      </trkpt>
      <trkpt lat="42.43054" lon="0.06849">
        <ele>688.8</ele>
        <time>2016-07-31T11:32:56Z</time>
      </trkpt>
      <trkpt lat="42.43055" lon="0.06844">
        <ele>689.4</ele>
        <time>2016-07-31T11:32:59Z</time>
      </trkpt>
      <trkpt lat="42.43056" lon="0.0684">
        <ele>689.9</ele>
        <time>2016-07-31T11:33:01Z</time>
      </trkpt>
      <trkpt lat="42.43058" lon="0.06836">
        <ele>690.5</ele>
        <time>2016-07-31T11:33:04Z</time>
      </trkpt>
      <trkpt lat="42.43059" lon="0.06831">
        <ele>691.3</ele>
        <time>2016-07-31T11:33:07Z</time>
      </trkpt>
      <trkpt lat="42.43061" lon="0.06828">
        <ele>692.1</ele>
        <time>2016-07-31T11:33:09Z</time>
      </trkpt>
      <trkpt lat="42.43063" lon="0.06825">
        <ele>692.9</ele>
        <time>2016-07-31T11:33:11Z</time>
      </trkpt>
      <trkpt lat="42.43065" lon="0.06823">
        <ele>693.7</ele>
        <time>2016-07-31T11:33:13Z</time>
      </trkpt>
      <trkpt lat="42.43067" lon="0.06821">
        <ele>694.6</ele>
        <time>2016-07-31T11:33:15Z</time>
      </trkpt>
      <trkpt lat="42.43071" lon="0.06818">
        <ele>696.2</ele>
        <time>2016-07-31T11:33:18Z</time>
      </trkpt>
      <trkpt lat="42.43074" lon="0.06818">
        <ele>697.3</ele>
        <time>2016-07-31T11:33:20Z</time>
      </trkpt>
      <trkpt lat="42.43077" lon="0.0682">
        <ele>698.9</ele>
        <time>2016-07-31T11:33:23Z</time>
      </trkpt>
      <trkpt lat="42.4308" lon="0.06821">
        <ele>699.9</ele>
        <time>2016-07-31T11:33:25Z</time>
      </trkpt>
      <trkpt lat="42.43084" lon="0.06823">
        <ele>701.4</ele>
        <time>2016-07-31T11:33:28Z</time>
      </trkpt>
      <trkpt lat="42.43087" lon="0.06826">
        <ele>702.6</ele>
        <time>2016-07-31T11:33:31Z</time>
      </trkpt>
      <trkpt lat="42.43089" lon="0.06828">
        <ele>703.5</ele>
        <time>2016-07-31T11:33:33Z</time>
      </trkpt>
      <trkpt lat="42.43092" lon="0.06829">
        <ele>704.7</ele>
        <time>2016-07-31T11:33:35Z</time>
      </trkpt>
      <trkpt lat="42.43095" lon="0.06829">
        <ele>705.9</ele>
        <time>2016-07-31T11:33:37Z</time>
      </trkpt>
      <trkpt lat="42.43098" lon="0.06827">
        <ele>707.1</ele>
        <time>2016-07-31T11:33:39Z</time>
      </trkpt>
      <trkpt lat="42.43101" lon="0.06825">
        <ele>708.3</ele>
        <time>2016-07-31T11:33:41Z</time>
      </trkpt>
      <trkpt lat="42.43103" lon="0.06823">
        <ele>709.4</ele>
        <time>2016-07-31T11:33:43Z</time>
      </trkpt>
      <trkpt lat="42.43105" lon="0.0682">
        <ele>710.3</ele>
        <time>2016-07-31T11:33:45Z</time>
      </trkpt>
      <trkpt lat="42.43106" lon="0.06816">
        <ele>710.9</ele>
        <time>2016-07-31T11:33:47Z</time>
      </trkpt>
      <trkpt lat="42.43106" lon="0.06811">
        <ele>711.1</ele>
        <time>2016-07-31T11:33:49Z</time>
      </trkpt>
      <trkpt lat="42.43106" lon="0.06807">
        <ele>711.1</ele>
        <time>2016-07-31T11:33:51Z</time>
      </trkpt>
      <trkpt lat="42.43105" lon="0.06803">
        <ele>711</ele>
        <time>2016-07-31T11:33:53Z</time>
      </trkpt>
      <trkpt lat="42.43104" lon="0.06797">
        <ele>710.5</ele>
        <time>2016-07-31T11:33:55Z</time>
      </trkpt>
      <trkpt lat="42.43102" lon="0.06792">
        <ele>709.9</ele>
        <time>2016-07-31T11:33:57Z</time>
      </trkpt>
      <trkpt lat="42.43102" lon="0.06788">
        <ele>710.4</ele>
        <time>2016-07-31T11:34:07Z</time>
      </trkpt>
      <trkpt lat="42.43105" lon="0.06786">
        <ele>711.6</ele>
        <time>2016-07-31T11:34:11Z</time>
      </trkpt>
      <trkpt lat="42.43107" lon="0.06785">
        <ele>712.9</ele>
        <time>2016-07-31T11:34:17Z</time>
      </trkpt>
      <trkpt lat="42.43108" lon="0.06781">
        <ele>713.4</ele>
        <time>2016-07-31T11:34:24Z</time>
      </trkpt>
      <trkpt lat="42.43109" lon="0.06776">
        <ele>714.3</ele>
        <time>2016-07-31T11:34:28Z</time>
      </trkpt>
      <trkpt lat="42.4311" lon="0.06772">
        <ele>715</ele>
        <time>2016-07-31T11:34:31Z</time>
      </trkpt>
      <trkpt lat="42.4311" lon="0.06768">
        <ele>715.2</ele>
        <time>2016-07-31T11:34:36Z</time>
      </trkpt>
      <trkpt lat="42.4311" lon="0.06763">
        <ele>715.5</ele>
        <time>2016-07-31T11:34:39Z</time>
      </trkpt>
      <trkpt lat="42.4311" lon="0.06759">
        <ele>716</ele>
        <time>2016-07-31T11:34:43Z</time>
      </trkpt>
      <trkpt lat="42.43109" lon="0.06755">
        <ele>715.9</ele>
        <time>2016-07-31T11:34:47Z</time>
      </trkpt>
      <trkpt lat="42.43107" lon="0.06752">
        <ele>715.4</ele>
        <time>2016-07-31T11:34:50Z</time>
      </trkpt>
      <trkpt lat="42.43106" lon="0.06748">
        <ele>715.1</ele>
        <time>2016-07-31T11:34:54Z</time>
      </trkpt>
      <trkpt lat="42.43106" lon="0.06743">
        <ele>715.5</ele>
        <time>2016-07-31T11:34:58Z</time>
      </trkpt>
      <trkpt lat="42.43106" lon="0.06739">
        <ele>715.8</ele>
        <time>2016-07-31T11:35:01Z</time>
      </trkpt>
      <trkpt lat="42.43107" lon="0.06735">
        <ele>716.3</ele>
        <time>2016-07-31T11:35:04Z</time>
      </trkpt>
      <trkpt lat="42.43106" lon="0.06731">
        <ele>716.5</ele>
        <time>2016-07-31T11:35:07Z</time>
      </trkpt>
      <trkpt lat="42.43105" lon="0.06727">
        <ele>716.1</ele>
        <time>2016-07-31T11:35:13Z</time>
      </trkpt>
      <trkpt lat="42.43103" lon="0.06722">
        <ele>715.7</ele>
        <time>2016-07-31T11:35:16Z</time>
      </trkpt>
      <trkpt lat="42.43101" lon="0.06719">
        <ele>715.2</ele>
        <time>2016-07-31T11:35:19Z</time>
      </trkpt>
      <trkpt lat="42.431" lon="0.06715">
        <ele>714.6</ele>
        <time>2016-07-31T11:35:22Z</time>
      </trkpt>
      <trkpt lat="42.43099" lon="0.06711">
        <ele>714.4</ele>
        <time>2016-07-31T11:35:25Z</time>
      </trkpt>
      <trkpt lat="42.43098" lon="0.06707">
        <ele>714.6</ele>
        <time>2016-07-31T11:35:28Z</time>
      </trkpt>
      <trkpt lat="42.43097" lon="0.06703">
        <ele>714.4</ele>
        <time>2016-07-31T11:35:31Z</time>
      </trkpt>
      <trkpt lat="42.43096" lon="0.06698">
        <ele>714.7</ele>
        <time>2016-07-31T11:35:34Z</time>
      </trkpt>
      <trkpt lat="42.43098" lon="0.06695">
        <ele>715.8</ele>
        <time>2016-07-31T11:35:36Z</time>
      </trkpt>
      <trkpt lat="42.43099" lon="0.06691">
        <ele>716.9</ele>
        <time>2016-07-31T11:35:39Z</time>
      </trkpt>
      <trkpt lat="42.43099" lon="0.06687">
        <ele>717.6</ele>
        <time>2016-07-31T11:35:42Z</time>
      </trkpt>
      <trkpt lat="42.431" lon="0.06681">
        <ele>718.6</ele>
        <time>2016-07-31T11:35:44Z</time>
      </trkpt>
      <trkpt lat="42.431" lon="0.06676">
        <ele>719</ele>
        <time>2016-07-31T11:35:46Z</time>
      </trkpt>
      <trkpt lat="42.43098" lon="0.06673">
        <ele>718.7</ele>
        <time>2016-07-31T11:35:48Z</time>
      </trkpt>
      <trkpt lat="42.43101" lon="0.0667">
        <ele>720.4</ele>
        <time>2016-07-31T11:35:53Z</time>
      </trkpt>
      <trkpt lat="42.43103" lon="0.06668">
        <ele>721.9</ele>
        <time>2016-07-31T11:35:57Z</time>
      </trkpt>
      <trkpt lat="42.43105" lon="0.06664">
        <ele>723.1</ele>
        <time>2016-07-31T11:36:00Z</time>
      </trkpt>
      <trkpt lat="42.43104" lon="0.06659">
        <ele>723.3</ele>
        <time>2016-07-31T11:36:03Z</time>
      </trkpt>
      <trkpt lat="42.43102" lon="0.06654">
        <ele>723</ele>
        <time>2016-07-31T11:36:06Z</time>
      </trkpt>
      <trkpt lat="42.43101" lon="0.06649">
        <ele>723</ele>
        <time>2016-07-31T11:36:08Z</time>
      </trkpt>
      <trkpt lat="42.431" lon="0.06645">
        <ele>723</ele>
        <time>2016-07-31T11:36:09Z</time>
      </trkpt>
      <trkpt lat="42.43099" lon="0.06641">
        <ele>723</ele>
        <time>2016-07-31T11:36:10Z</time>
      </trkpt>
      <trkpt lat="42.43098" lon="0.06637">
        <ele>722.9</ele>
        <time>2016-07-31T11:36:11Z</time>
      </trkpt>
      <trkpt lat="42.43097" lon="0.06634">
        <ele>722.7</ele>
        <time>2016-07-31T11:36:12Z</time>
      </trkpt>
      <trkpt lat="42.43096" lon="0.06631">
        <ele>722.4</ele>
        <time>2016-07-31T11:36:13Z</time>
      </trkpt>
      <trkpt lat="42.43095" lon="0.06627">
        <ele>722</ele>
        <time>2016-07-31T11:36:14Z</time>
      </trkpt>
      <trkpt lat="42.43094" lon="0.06624">
        <ele>721.4</ele>
        <time>2016-07-31T11:36:15Z</time>
      </trkpt>
      <trkpt lat="42.43091" lon="0.06619">
        <ele>719.8</ele>
        <time>2016-07-31T11:36:17Z</time>
      </trkpt>
      <trkpt lat="42.43089" lon="0.06614">
        <ele>718.4</ele>
        <time>2016-07-31T11:36:19Z</time>
      </trkpt>
      <trkpt lat="42.43086" lon="0.06609">
        <ele>716.5</ele>
        <time>2016-07-31T11:36:21Z</time>
      </trkpt>
      <trkpt lat="42.43083" lon="0.06603">
        <ele>714.5</ele>
        <time>2016-07-31T11:36:23Z</time>
      </trkpt>
      <trkpt lat="42.43081" lon="0.06599">
        <ele>713.3</ele>
        <time>2016-07-31T11:36:24Z</time>
      </trkpt>
      <trkpt lat="42.4308" lon="0.06596">
        <ele>712.1</ele>
        <time>2016-07-31T11:36:25Z</time>
      </trkpt>
      <trkpt lat="42.43077" lon="0.06593">
        <ele>710.7</ele>
        <time>2016-07-31T11:36:26Z</time>
      </trkpt>
      <trkpt lat="42.43075" lon="0.06589">
        <ele>709.4</ele>
        <time>2016-07-31T11:36:27Z</time>
      </trkpt>
      <trkpt lat="42.43074" lon="0.06586">
        <ele>708.3</ele>
        <time>2016-07-31T11:36:28Z</time>
      </trkpt>
      <trkpt lat="42.43073" lon="0.06582">
        <ele>707.6</ele>
        <time>2016-07-31T11:36:29Z</time>
      </trkpt>
      <trkpt lat="42.43072" lon="0.06578">
        <ele>707.3</ele>
        <time>2016-07-31T11:36:30Z</time>
      </trkpt>
      <trkpt lat="42.43072" lon="0.06572">
        <ele>707.1</ele>
        <time>2016-07-31T11:36:32Z</time>
      </trkpt>
      <trkpt lat="42.43071" lon="0.06565">
        <ele>706.3</ele>
        <time>2016-07-31T11:36:34Z</time>
      </trkpt>
      <trkpt lat="42.43071" lon="0.06558">
        <ele>705.9</ele>
        <time>2016-07-31T11:36:36Z</time>
      </trkpt>
      <trkpt lat="42.43071" lon="0.06551">
        <ele>705.4</ele>
        <time>2016-07-31T11:36:38Z</time>
      </trkpt>
      <trkpt lat="42.4307" lon="0.06547">
        <ele>705.1</ele>
        <time>2016-07-31T11:36:39Z</time>
      </trkpt>
      <trkpt lat="42.43071" lon="0.0654">
        <ele>704.6</ele>
        <time>2016-07-31T11:36:41Z</time>
      </trkpt>
      <trkpt lat="42.43071" lon="0.06536">
        <ele>704.3</ele>
        <time>2016-07-31T11:36:42Z</time>
      </trkpt>
      <trkpt lat="42.43072" lon="0.0653">
        <ele>704</ele>
        <time>2016-07-31T11:36:44Z</time>
      </trkpt>
      <trkpt lat="42.43075" lon="0.06525">
        <ele>704.2</ele>
        <time>2016-07-31T11:36:46Z</time>
      </trkpt>
      <trkpt lat="42.43076" lon="0.06521">
        <ele>704.4</ele>
        <time>2016-07-31T11:36:48Z</time>
      </trkpt>
      <trkpt lat="42.43079" lon="0.06515">
        <ele>704.5</ele>
        <time>2016-07-31T11:36:50Z</time>
      </trkpt>
      <trkpt lat="42.43081" lon="0.06509">
        <ele>704.8</ele>
        <time>2016-07-31T11:36:52Z</time>
      </trkpt>
      <trkpt lat="42.43084" lon="0.06504">
        <ele>705.2</ele>
        <time>2016-07-31T11:36:54Z</time>
      </trkpt>
      <trkpt lat="42.43088" lon="0.06498">
        <ele>705.5</ele>
        <time>2016-07-31T11:36:56Z</time>
      </trkpt>
      <trkpt lat="42.43089" lon="0.06494">
        <ele>705.4</ele>
        <time>2016-07-31T11:36:57Z</time>
      </trkpt>
      <trkpt lat="42.43091" lon="0.0649">
        <ele>705.4</ele>
        <time>2016-07-31T11:36:58Z</time>
      </trkpt>
      <trkpt lat="42.43093" lon="0.06486">
        <ele>705.4</ele>
        <time>2016-07-31T11:36:59Z</time>
      </trkpt>
      <trkpt lat="42.43095" lon="0.06483">
        <ele>705.6</ele>
        <time>2016-07-31T11:37:00Z</time>
      </trkpt>
      <trkpt lat="42.43097" lon="0.0648">
        <ele>705.8</ele>
        <time>2016-07-31T11:37:01Z</time>
      </trkpt>
      <trkpt lat="42.431" lon="0.06476">
        <ele>706.1</ele>
        <time>2016-07-31T11:37:03Z</time>
      </trkpt>
      <trkpt lat="42.43102" lon="0.06472">
        <ele>706</ele>
        <time>2016-07-31T11:37:05Z</time>
      </trkpt>
      <trkpt lat="42.43105" lon="0.06466">
        <ele>705.7</ele>
        <time>2016-07-31T11:37:07Z</time>
      </trkpt>
      <trkpt lat="42.43107" lon="0.06462">
        <ele>705.3</ele>
        <time>2016-07-31T11:37:08Z</time>
      </trkpt>
      <trkpt lat="42.43108" lon="0.06458">
        <ele>704.9</ele>
        <time>2016-07-31T11:37:09Z</time>
      </trkpt>
      <trkpt lat="42.4311" lon="0.06455">
        <ele>704.9</ele>
        <time>2016-07-31T11:37:10Z</time>
      </trkpt>
      <trkpt lat="42.43114" lon="0.06451">
        <ele>705.2</ele>
        <time>2016-07-31T11:37:12Z</time>
      </trkpt>
      <trkpt lat="42.43117" lon="0.06446">
        <ele>705.5</ele>
        <time>2016-07-31T11:37:14Z</time>
      </trkpt>
      <trkpt lat="42.4312" lon="0.06443">
        <ele>705.7</ele>
        <time>2016-07-31T11:37:15Z</time>
      </trkpt>
      <trkpt lat="42.43123" lon="0.06441">
        <ele>706.1</ele>
        <time>2016-07-31T11:37:16Z</time>
      </trkpt>
      <trkpt lat="42.43126" lon="0.06439">
        <ele>706.7</ele>
        <time>2016-07-31T11:37:17Z</time>
      </trkpt>
      <trkpt lat="42.43129" lon="0.06437">
        <ele>707.5</ele>
        <time>2016-07-31T11:37:18Z</time>
      </trkpt>
      <trkpt lat="42.43132" lon="0.06435">
        <ele>708.5</ele>
        <time>2016-07-31T11:37:20Z</time>
      </trkpt>
      <trkpt lat="42.43136" lon="0.06432">
        <ele>709.2</ele>
        <time>2016-07-31T11:37:22Z</time>
      </trkpt>
      <trkpt lat="42.43139" lon="0.06429">
        <ele>709.8</ele>
        <time>2016-07-31T11:37:24Z</time>
      </trkpt>
      <trkpt lat="42.43143" lon="0.06425">
        <ele>710.3</ele>
        <time>2016-07-31T11:37:26Z</time>
      </trkpt>
      <trkpt lat="42.43145" lon="0.06422">
        <ele>710.4</ele>
        <time>2016-07-31T11:37:27Z</time>
      </trkpt>
      <trkpt lat="42.43147" lon="0.06419">
        <ele>710.5</ele>
        <time>2016-07-31T11:37:28Z</time>
      </trkpt>
      <trkpt lat="42.4315" lon="0.06416">
        <ele>710.6</ele>
        <time>2016-07-31T11:37:29Z</time>
      </trkpt>
      <trkpt lat="42.43152" lon="0.06413">
        <ele>710.8</ele>
        <time>2016-07-31T11:37:30Z</time>
      </trkpt>
      <trkpt lat="42.43154" lon="0.06411">
        <ele>711.2</ele>
        <time>2016-07-31T11:37:31Z</time>
      </trkpt>
      <trkpt lat="42.43157" lon="0.06409">
        <ele>711.5</ele>
        <time>2016-07-31T11:37:32Z</time>
      </trkpt>
      <trkpt lat="42.43159" lon="0.06406">
        <ele>711.6</ele>
        <time>2016-07-31T11:37:33Z</time>
      </trkpt>
      <trkpt lat="42.43161" lon="0.06403">
        <ele>711.4</ele>
        <time>2016-07-31T11:37:34Z</time>
      </trkpt>
      <trkpt lat="42.43163" lon="0.06399">
        <ele>711.1</ele>
        <time>2016-07-31T11:37:35Z</time>
      </trkpt>
      <trkpt lat="42.43164" lon="0.06396">
        <ele>710.7</ele>
        <time>2016-07-31T11:37:36Z</time>
      </trkpt>
      <trkpt lat="42.43165" lon="0.06393">
        <ele>710.3</ele>
        <time>2016-07-31T11:37:37Z</time>
      </trkpt>
      <trkpt lat="42.43167" lon="0.0639">
        <ele>709.8</ele>
        <time>2016-07-31T11:37:38Z</time>
      </trkpt>
      <trkpt lat="42.43169" lon="0.06386">
        <ele>709.6</ele>
        <time>2016-07-31T11:37:39Z</time>
      </trkpt>
      <trkpt lat="42.43171" lon="0.06383">
        <ele>709.5</ele>
        <time>2016-07-31T11:37:40Z</time>
      </trkpt>
      <trkpt lat="42.43174" lon="0.0638">
        <ele>709.5</ele>
        <time>2016-07-31T11:37:41Z</time>
      </trkpt>
      <trkpt lat="42.43176" lon="0.06377">
        <ele>709.5</ele>
        <time>2016-07-31T11:37:42Z</time>
      </trkpt>
      <trkpt lat="42.43179" lon="0.06374">
        <ele>709.5</ele>
        <time>2016-07-31T11:37:43Z</time>
      </trkpt>
      <trkpt lat="42.4318" lon="0.06371">
        <ele>709.2</ele>
        <time>2016-07-31T11:37:44Z</time>
      </trkpt>
      <trkpt lat="42.43182" lon="0.06367">
        <ele>708.7</ele>
        <time>2016-07-31T11:37:45Z</time>
      </trkpt>
      <trkpt lat="42.43184" lon="0.06363">
        <ele>708.1</ele>
        <time>2016-07-31T11:37:46Z</time>
      </trkpt>
      <trkpt lat="42.43185" lon="0.06359">
        <ele>707.6</ele>
        <time>2016-07-31T11:37:47Z</time>
      </trkpt>
      <trkpt lat="42.43187" lon="0.06356">
        <ele>707.1</ele>
        <time>2016-07-31T11:37:48Z</time>
      </trkpt>
      <trkpt lat="42.43188" lon="0.06352">
        <ele>706.7</ele>
        <time>2016-07-31T11:37:49Z</time>
      </trkpt>
      <trkpt lat="42.43192" lon="0.06347">
        <ele>706.5</ele>
        <time>2016-07-31T11:37:51Z</time>
      </trkpt>
      <trkpt lat="42.43194" lon="0.06345">
        <ele>706.6</ele>
        <time>2016-07-31T11:37:52Z</time>
      </trkpt>
      <trkpt lat="42.43197" lon="0.06343">
        <ele>706.8</ele>
        <time>2016-07-31T11:37:53Z</time>
      </trkpt>
      <trkpt lat="42.43199" lon="0.06341">
        <ele>706.8</ele>
        <time>2016-07-31T11:37:54Z</time>
      </trkpt>
      <trkpt lat="42.43202" lon="0.06337">
        <ele>706.7</ele>
        <time>2016-07-31T11:37:56Z</time>
      </trkpt>
      <trkpt lat="42.43205" lon="0.06334">
        <ele>706.5</ele>
        <time>2016-07-31T11:38:03Z</time>
      </trkpt>
      <trkpt lat="42.43209" lon="0.06332">
        <ele>707.3</ele>
        <time>2016-07-31T11:38:05Z</time>
      </trkpt>
      <trkpt lat="42.43212" lon="0.0633">
        <ele>707.8</ele>
        <time>2016-07-31T11:38:14Z</time>
      </trkpt>
      <trkpt lat="42.43213" lon="0.06325">
        <ele>706.4</ele>
        <time>2016-07-31T11:38:18Z</time>
      </trkpt>
      <trkpt lat="42.43212" lon="0.0632">
        <ele>705</ele>
        <time>2016-07-31T11:38:22Z</time>
      </trkpt>
      <trkpt lat="42.43213" lon="0.06316">
        <ele>703.8</ele>
        <time>2016-07-31T11:38:24Z</time>
      </trkpt>
      <trkpt lat="42.43215" lon="0.06309">
        <ele>702.5</ele>
        <time>2016-07-31T11:38:26Z</time>
      </trkpt>
      <trkpt lat="42.43218" lon="0.06306">
        <ele>702.2</ele>
        <time>2016-07-31T11:38:28Z</time>
      </trkpt>
      <trkpt lat="42.43221" lon="0.06306">
        <ele>703.4</ele>
        <time>2016-07-31T11:38:35Z</time>
      </trkpt>
      <trkpt lat="42.43224" lon="0.06308">
        <ele>704.8</ele>
        <time>2016-07-31T11:38:38Z</time>
      </trkpt>
      <trkpt lat="42.43227" lon="0.06309">
        <ele>706.3</ele>
        <time>2016-07-31T11:38:41Z</time>
      </trkpt>
      <trkpt lat="42.43229" lon="0.06311">
        <ele>707.7</ele>
        <time>2016-07-31T11:38:45Z</time>
      </trkpt>
      <trkpt lat="42.43233" lon="0.06309">
        <ele>708.2</ele>
        <time>2016-07-31T11:38:52Z</time>
      </trkpt>
      <trkpt lat="42.43236" lon="0.06307">
        <ele>708.6</ele>
        <time>2016-07-31T11:38:57Z</time>
      </trkpt>
      <trkpt lat="42.43238" lon="0.06308">
        <ele>709.7</ele>
        <time>2016-07-31T11:39:01Z</time>
      </trkpt>
      <trkpt lat="42.43241" lon="0.06308">
        <ele>710.7</ele>
        <time>2016-07-31T11:39:05Z</time>
      </trkpt>
      <trkpt lat="42.43244" lon="0.06307">
        <ele>711.3</ele>
        <time>2016-07-31T11:39:13Z</time>
      </trkpt>
      <trkpt lat="42.43247" lon="0.06308">
        <ele>712.5</ele>
        <time>2016-07-31T11:39:19Z</time>
      </trkpt>
      <trkpt lat="42.43251" lon="0.06308">
        <ele>713.8</ele>
        <time>2016-07-31T11:39:22Z</time>
      </trkpt>
      <trkpt lat="42.43254" lon="0.06307">
        <ele>714.6</ele>
        <time>2016-07-31T11:39:25Z</time>
      </trkpt>
      <trkpt lat="42.43257" lon="0.06305">
        <ele>715.1</ele>
        <time>2016-07-31T11:39:29Z</time>
      </trkpt>
      <trkpt lat="42.43259" lon="0.06303">
        <ele>715.1</ele>
        <time>2016-07-31T11:39:32Z</time>
      </trkpt>
      <trkpt lat="42.43262" lon="0.063">
        <ele>715.1</ele>
        <time>2016-07-31T11:39:36Z</time>
      </trkpt>
      <trkpt lat="42.43265" lon="0.06301">
        <ele>716.2</ele>
        <time>2016-07-31T11:39:41Z</time>
      </trkpt>
      <trkpt lat="42.43268" lon="0.063">
        <ele>717</ele>
        <time>2016-07-31T11:39:43Z</time>
      </trkpt>
      <trkpt lat="42.43273" lon="0.06301">
        <ele>718.9</ele>
        <time>2016-07-31T11:39:45Z</time>
      </trkpt>
      <trkpt lat="42.43275" lon="0.06303">
        <ele>720.3</ele>
        <time>2016-07-31T11:39:46Z</time>
      </trkpt>
      <trkpt lat="42.4328" lon="0.06305">
        <ele>722.4</ele>
        <time>2016-07-31T11:39:48Z</time>
      </trkpt>
      <trkpt lat="42.43282" lon="0.06303">
        <ele>722.5</ele>
        <time>2016-07-31T11:39:55Z</time>
      </trkpt>
      <trkpt lat="42.43286" lon="0.06301">
        <ele>723.3</ele>
        <time>2016-07-31T11:40:01Z</time>
      </trkpt>
      <trkpt lat="42.4329" lon="0.06301">
        <ele>724.5</ele>
        <time>2016-07-31T11:40:03Z</time>
      </trkpt>
      <trkpt lat="42.43295" lon="0.063">
        <ele>724.8</ele>
        <time>2016-07-31T11:40:05Z</time>
      </trkpt>
      <trkpt lat="42.43297" lon="0.06298">
        <ele>724.5</ele>
        <time>2016-07-31T11:40:06Z</time>
      </trkpt>
      <trkpt lat="42.43301" lon="0.06296">
        <ele>724</ele>
        <time>2016-07-31T11:40:08Z</time>
      </trkpt>
      <trkpt lat="42.43304" lon="0.06295">
        <ele>723.8</ele>
        <time>2016-07-31T11:40:10Z</time>
      </trkpt>
      <trkpt lat="42.43307" lon="0.06295">
        <ele>724</ele>
        <time>2016-07-31T11:40:15Z</time>
      </trkpt>
      <trkpt lat="42.43308" lon="0.06299">
        <ele>725.5</ele>
        <time>2016-07-31T11:40:18Z</time>
      </trkpt>
      <trkpt lat="42.43308" lon="0.06304">
        <ele>727</ele>
        <time>2016-07-31T11:40:21Z</time>
      </trkpt>
      <trkpt lat="42.4331" lon="0.06307">
        <ele>728.2</ele>
        <time>2016-07-31T11:40:24Z</time>
      </trkpt>
      <trkpt lat="42.43312" lon="0.06311">
        <ele>729.5</ele>
        <time>2016-07-31T11:40:28Z</time>
      </trkpt>
      <trkpt lat="42.43315" lon="0.06312">
        <ele>730.2</ele>
        <time>2016-07-31T11:40:31Z</time>
      </trkpt>
      <trkpt lat="42.43318" lon="0.06311">
        <ele>730.2</ele>
        <time>2016-07-31T11:40:35Z</time>
      </trkpt>
      <trkpt lat="42.4332" lon="0.06316">
        <ele>731.8</ele>
        <time>2016-07-31T11:40:40Z</time>
      </trkpt>
      <trkpt lat="42.43321" lon="0.06319">
        <ele>733.1</ele>
        <time>2016-07-31T11:40:45Z</time>
      </trkpt>
      <trkpt lat="42.43323" lon="0.06323">
        <ele>734.3</ele>
        <time>2016-07-31T11:40:48Z</time>
      </trkpt>
      <trkpt lat="42.43325" lon="0.06325">
        <ele>735.4</ele>
        <time>2016-07-31T11:40:51Z</time>
      </trkpt>
      <trkpt lat="42.43329" lon="0.06324">
        <ele>735</ele>
        <time>2016-07-31T11:40:54Z</time>
      </trkpt>
      <trkpt lat="42.43331" lon="0.0632">
        <ele>734.1</ele>
        <time>2016-07-31T11:40:57Z</time>
      </trkpt>
      <trkpt lat="42.43333" lon="0.06317">
        <ele>733.2</ele>
        <time>2016-07-31T11:41:01Z</time>
      </trkpt>
      <trkpt lat="42.43336" lon="0.06318">
        <ele>733.7</ele>
        <time>2016-07-31T11:41:05Z</time>
      </trkpt>
      <trkpt lat="42.43338" lon="0.06322">
        <ele>735</ele>
        <time>2016-07-31T11:41:08Z</time>
      </trkpt>
      <trkpt lat="42.4334" lon="0.06326">
        <ele>736.9</ele>
        <time>2016-07-31T11:41:10Z</time>
      </trkpt>
      <trkpt lat="42.43343" lon="0.06328">
        <ele>737.7</ele>
        <time>2016-07-31T11:41:14Z</time>
      </trkpt>
      <trkpt lat="42.43348" lon="0.06329">
        <ele>738.5</ele>
        <time>2016-07-31T11:41:17Z</time>
      </trkpt>
      <trkpt lat="42.43351" lon="0.06329">
        <ele>738.4</ele>
        <time>2016-07-31T11:41:20Z</time>
      </trkpt>
      <trkpt lat="42.43354" lon="0.06327">
        <ele>738.1</ele>
        <time>2016-07-31T11:41:24Z</time>
      </trkpt>
      <trkpt lat="42.43357" lon="0.06324">
        <ele>737.4</ele>
        <time>2016-07-31T11:41:27Z</time>
      </trkpt>
      <trkpt lat="42.4336" lon="0.06325">
        <ele>737.8</ele>
        <time>2016-07-31T11:41:31Z</time>
      </trkpt>
      <trkpt lat="42.43364" lon="0.06328">
        <ele>739.4</ele>
        <time>2016-07-31T11:41:35Z</time>
      </trkpt>
      <trkpt lat="42.43366" lon="0.06331">
        <ele>740.6</ele>
        <time>2016-07-31T11:41:37Z</time>
      </trkpt>
      <trkpt lat="42.43368" lon="0.06334">
        <ele>741.8</ele>
        <time>2016-07-31T11:41:39Z</time>
      </trkpt>
      <trkpt lat="42.43371" lon="0.06336">
        <ele>742.6</ele>
        <time>2016-07-31T11:41:41Z</time>
      </trkpt>
      <trkpt lat="42.43375" lon="0.06337">
        <ele>743.4</ele>
        <time>2016-07-31T11:41:43Z</time>
      </trkpt>
      <trkpt lat="42.43378" lon="0.06341">
        <ele>744</ele>
        <time>2016-07-31T11:41:45Z</time>
      </trkpt>
      <trkpt lat="42.4338" lon="0.06346">
        <ele>745.3</ele>
        <time>2016-07-31T11:41:47Z</time>
      </trkpt>
      <trkpt lat="42.43382" lon="0.06348">
        <ele>745.3</ele>
        <time>2016-07-31T11:41:50Z</time>
      </trkpt>
      <trkpt lat="42.43385" lon="0.06352">
        <ele>745.6</ele>
        <time>2016-07-31T11:41:52Z</time>
      </trkpt>
      <trkpt lat="42.43388" lon="0.06355">
        <ele>746.3</ele>
        <time>2016-07-31T11:41:54Z</time>
      </trkpt>
      <trkpt lat="42.43391" lon="0.06359">
        <ele>746.3</ele>
        <time>2016-07-31T11:41:56Z</time>
      </trkpt>
      <trkpt lat="42.43395" lon="0.06364">
        <ele>747</ele>
        <time>2016-07-31T11:41:58Z</time>
      </trkpt>
      <trkpt lat="42.43396" lon="0.06367">
        <ele>747.6</ele>
        <time>2016-07-31T11:41:59Z</time>
      </trkpt>
      <trkpt lat="42.43399" lon="0.0637">
        <ele>747.7</ele>
        <time>2016-07-31T11:42:00Z</time>
      </trkpt>
      <trkpt lat="42.43403" lon="0.06372">
        <ele>747.3</ele>
        <time>2016-07-31T11:42:01Z</time>
      </trkpt>
      <trkpt lat="42.43406" lon="0.06374">
        <ele>746.9</ele>
        <time>2016-07-31T11:42:02Z</time>
      </trkpt>
      <trkpt lat="42.4341" lon="0.06377">
        <ele>746.4</ele>
        <time>2016-07-31T11:42:03Z</time>
      </trkpt>
      <trkpt lat="42.43415" lon="0.0638">
        <ele>746.2</ele>
        <time>2016-07-31T11:42:04Z</time>
      </trkpt>
      <trkpt lat="42.43418" lon="0.06384">
        <ele>746.2</ele>
        <time>2016-07-31T11:42:05Z</time>
      </trkpt>
      <trkpt lat="42.4342" lon="0.06389">
        <ele>746.8</ele>
        <time>2016-07-31T11:42:06Z</time>
      </trkpt>
      <trkpt lat="42.43422" lon="0.06394">
        <ele>747.5</ele>
        <time>2016-07-31T11:42:07Z</time>
      </trkpt>
      <trkpt lat="42.43424" lon="0.06398">
        <ele>748.1</ele>
        <time>2016-07-31T11:42:08Z</time>
      </trkpt>
      <trkpt lat="42.43425" lon="0.06402">
        <ele>748.8</ele>
        <time>2016-07-31T11:42:09Z</time>
      </trkpt>
      <trkpt lat="42.43426" lon="0.06406">
        <ele>749.5</ele>
        <time>2016-07-31T11:42:10Z</time>
      </trkpt>
      <trkpt lat="42.43427" lon="0.0641">
        <ele>750.1</ele>
        <time>2016-07-31T11:42:11Z</time>
      </trkpt>
      <trkpt lat="42.43428" lon="0.06415">
        <ele>751.2</ele>
        <time>2016-07-31T11:42:13Z</time>
      </trkpt>
      <trkpt lat="42.4343" lon="0.06421">
        <ele>752.2</ele>
        <time>2016-07-31T11:42:15Z</time>
      </trkpt>
      <trkpt lat="42.43432" lon="0.06426">
        <ele>752.5</ele>
        <time>2016-07-31T11:42:17Z</time>
      </trkpt>
      <trkpt lat="42.43434" lon="0.06429">
        <ele>752.2</ele>
        <time>2016-07-31T11:42:18Z</time>
      </trkpt>
      <trkpt lat="42.43437" lon="0.06431">
        <ele>751.7</ele>
        <time>2016-07-31T11:42:19Z</time>
      </trkpt>
      <trkpt lat="42.4344" lon="0.06433">
        <ele>751.1</ele>
        <time>2016-07-31T11:42:21Z</time>
      </trkpt>
      <trkpt lat="42.43443" lon="0.06436">
        <ele>750.5</ele>
        <time>2016-07-31T11:42:23Z</time>
      </trkpt>
      <trkpt lat="42.43445" lon="0.06443">
        <ele>751</ele>
        <time>2016-07-31T11:42:25Z</time>
      </trkpt>
      <trkpt lat="42.43446" lon="0.06449">
        <ele>751.8</ele>
        <time>2016-07-31T11:42:26Z</time>
      </trkpt>
      <trkpt lat="42.43448" lon="0.06455">
        <ele>752.4</ele>
        <time>2016-07-31T11:42:27Z</time>
      </trkpt>
      <trkpt lat="42.4345" lon="0.06459">
        <ele>752.2</ele>
        <time>2016-07-31T11:42:29Z</time>
      </trkpt>
      <trkpt lat="42.43454" lon="0.0646">
        <ele>750.5</ele>
        <time>2016-07-31T11:42:31Z</time>
      </trkpt>
      <trkpt lat="42.43458" lon="0.06458">
        <ele>748.3</ele>
        <time>2016-07-31T11:42:33Z</time>
      </trkpt>
      <trkpt lat="42.43461" lon="0.06459">
        <ele>747</ele>
        <time>2016-07-31T11:42:36Z</time>
      </trkpt>
      <trkpt lat="42.43464" lon="0.06457">
        <ele>745.4</ele>
        <time>2016-07-31T11:42:39Z</time>
      </trkpt>
      <trkpt lat="42.43468" lon="0.0646">
        <ele>744.3</ele>
        <time>2016-07-31T11:42:41Z</time>
      </trkpt>
      <trkpt lat="42.43473" lon="0.06465">
        <ele>743.8</ele>
        <time>2016-07-31T11:42:43Z</time>
      </trkpt>
      <trkpt lat="42.43475" lon="0.06469">
        <ele>743.5</ele>
        <time>2016-07-31T11:42:44Z</time>
      </trkpt>
      <trkpt lat="42.43479" lon="0.06473">
        <ele>743.2</ele>
        <time>2016-07-31T11:42:45Z</time>
      </trkpt>
      <trkpt lat="42.43481" lon="0.06477">
        <ele>743</ele>
        <time>2016-07-31T11:42:46Z</time>
      </trkpt>
      <trkpt lat="42.43484" lon="0.06481">
        <ele>742.7</ele>
        <time>2016-07-31T11:42:47Z</time>
      </trkpt>
      <trkpt lat="42.43487" lon="0.06486">
        <ele>742.5</ele>
        <time>2016-07-31T11:42:48Z</time>
      </trkpt>
      <trkpt lat="42.4349" lon="0.06492">
        <ele>742</ele>
        <time>2016-07-31T11:42:49Z</time>
      </trkpt>
      <trkpt lat="42.43494" lon="0.06497">
        <ele>741.6</ele>
        <time>2016-07-31T11:42:50Z</time>
      </trkpt>
      <trkpt lat="42.43497" lon="0.06503">
        <ele>741.1</ele>
        <time>2016-07-31T11:42:51Z</time>
      </trkpt>
      <trkpt lat="42.43501" lon="0.06509">
        <ele>740.3</ele>
        <time>2016-07-31T11:42:52Z</time>
      </trkpt>
      <trkpt lat="42.43506" lon="0.06514">
        <ele>739.3</ele>
        <time>2016-07-31T11:42:53Z</time>
      </trkpt>
      <trkpt lat="42.4351" lon="0.06519">
        <ele>738.2</ele>
        <time>2016-07-31T11:42:54Z</time>
      </trkpt>
      <trkpt lat="42.43513" lon="0.06522">
        <ele>737</ele>
        <time>2016-07-31T11:42:55Z</time>
      </trkpt>
      <trkpt lat="42.43516" lon="0.06526">
        <ele>736.2</ele>
        <time>2016-07-31T11:42:56Z</time>
      </trkpt>
      <trkpt lat="42.43518" lon="0.06529">
        <ele>735.7</ele>
        <time>2016-07-31T11:42:57Z</time>
      </trkpt>
      <trkpt lat="42.4352" lon="0.06532">
        <ele>735.3</ele>
        <time>2016-07-31T11:42:58Z</time>
      </trkpt>
      <trkpt lat="42.43523" lon="0.06538">
        <ele>734.3</ele>
        <time>2016-07-31T11:43:00Z</time>
      </trkpt>
      <trkpt lat="42.43525" lon="0.06543">
        <ele>733.9</ele>
        <time>2016-07-31T11:43:01Z</time>
      </trkpt>
      <trkpt lat="42.43527" lon="0.06548">
        <ele>733.4</ele>
        <time>2016-07-31T11:43:02Z</time>
      </trkpt>
      <trkpt lat="42.43529" lon="0.06554">
        <ele>733.2</ele>
        <time>2016-07-31T11:43:03Z</time>
      </trkpt>
      <trkpt lat="42.4353" lon="0.06558">
        <ele>732.9</ele>
        <time>2016-07-31T11:43:04Z</time>
      </trkpt>
      <trkpt lat="42.43532" lon="0.06563">
        <ele>732.6</ele>
        <time>2016-07-31T11:43:05Z</time>
      </trkpt>
      <trkpt lat="42.43532" lon="0.06567">
        <ele>732.6</ele>
        <time>2016-07-31T11:43:06Z</time>
      </trkpt>
      <trkpt lat="42.43533" lon="0.06571">
        <ele>732.6</ele>
        <time>2016-07-31T11:43:07Z</time>
      </trkpt>
      <trkpt lat="42.43534" lon="0.06575">
        <ele>732.6</ele>
        <time>2016-07-31T11:43:08Z</time>
      </trkpt>
      <trkpt lat="42.43535" lon="0.06579">
        <ele>732.4</ele>
        <time>2016-07-31T11:43:09Z</time>
      </trkpt>
      <trkpt lat="42.43536" lon="0.06583">
        <ele>732.2</ele>
        <time>2016-07-31T11:43:10Z</time>
      </trkpt>
      <trkpt lat="42.43538" lon="0.0659">
        <ele>731.6</ele>
        <time>2016-07-31T11:43:12Z</time>
      </trkpt>
      <trkpt lat="42.43539" lon="0.06594">
        <ele>731.3</ele>
        <time>2016-07-31T11:43:13Z</time>
      </trkpt>
      <trkpt lat="42.4354" lon="0.06599">
        <ele>731.3</ele>
        <time>2016-07-31T11:43:14Z</time>
      </trkpt>
      <trkpt lat="42.43541" lon="0.06603">
        <ele>731.5</ele>
        <time>2016-07-31T11:43:15Z</time>
      </trkpt>
      <trkpt lat="42.43541" lon="0.06608">
        <ele>731.9</ele>
        <time>2016-07-31T11:43:16Z</time>
      </trkpt>
      <trkpt lat="42.43541" lon="0.06612">
        <ele>732.2</ele>
        <time>2016-07-31T11:43:17Z</time>
      </trkpt>
      <trkpt lat="42.43541" lon="0.06615">
        <ele>732.6</ele>
        <time>2016-07-31T11:43:18Z</time>
      </trkpt>
      <trkpt lat="42.43541" lon="0.06619">
        <ele>733.1</ele>
        <time>2016-07-31T11:43:19Z</time>
      </trkpt>
      <trkpt lat="42.43541" lon="0.06625">
        <ele>733.2</ele>
        <time>2016-07-31T11:43:21Z</time>
      </trkpt>
      <trkpt lat="42.43542" lon="0.06631">
        <ele>732.7</ele>
        <time>2016-07-31T11:43:23Z</time>
      </trkpt>
      <trkpt lat="42.43543" lon="0.06635">
        <ele>732.4</ele>
        <time>2016-07-31T11:43:25Z</time>
      </trkpt>
      <trkpt lat="42.43544" lon="0.06639">
        <ele>731.6</ele>
        <time>2016-07-31T11:43:28Z</time>
      </trkpt>
      <trkpt lat="42.43546" lon="0.06642">
        <ele>730.6</ele>
        <time>2016-07-31T11:43:37Z</time>
      </trkpt>
      <trkpt lat="42.43544" lon="0.06646">
        <ele>731.8</ele>
        <time>2016-07-31T11:43:43Z</time>
      </trkpt>
      <trkpt lat="42.43548" lon="0.06648">
        <ele>729.7</ele>
        <time>2016-07-31T11:43:50Z</time>
      </trkpt>
      <trkpt lat="42.43551" lon="0.06644">
        <ele>727.4</ele>
        <time>2016-07-31T11:43:52Z</time>
      </trkpt>
      <trkpt lat="42.43553" lon="0.06641">
        <ele>725.8</ele>
        <time>2016-07-31T11:43:54Z</time>
      </trkpt>
      <trkpt lat="42.43555" lon="0.06638">
        <ele>724.4</ele>
        <time>2016-07-31T11:44:03Z</time>
      </trkpt>
      <trkpt lat="42.43555" lon="0.06644">
        <ele>725.1</ele>
        <time>2016-07-31T11:44:09Z</time>
      </trkpt>
      <trkpt lat="42.43555" lon="0.06648">
        <ele>725.1</ele>
        <time>2016-07-31T11:44:10Z</time>
      </trkpt>
      <trkpt lat="42.43555" lon="0.06652">
        <ele>725</ele>
        <time>2016-07-31T11:44:11Z</time>
      </trkpt>
      <trkpt lat="42.43555" lon="0.06657">
        <ele>725.2</ele>
        <time>2016-07-31T11:44:12Z</time>
      </trkpt>
      <trkpt lat="42.43555" lon="0.06661">
        <ele>725.1</ele>
        <time>2016-07-31T11:44:13Z</time>
      </trkpt>
      <trkpt lat="42.43554" lon="0.06668">
        <ele>725.5</ele>
        <time>2016-07-31T11:44:15Z</time>
      </trkpt>
      <trkpt lat="42.43554" lon="0.06672">
        <ele>725.8</ele>
        <time>2016-07-31T11:44:16Z</time>
      </trkpt>
      <trkpt lat="42.43553" lon="0.06679">
        <ele>726.7</ele>
        <time>2016-07-31T11:44:18Z</time>
      </trkpt>
      <trkpt lat="42.43552" lon="0.06682">
        <ele>727.4</ele>
        <time>2016-07-31T11:44:19Z</time>
      </trkpt>
      <trkpt lat="42.43552" lon="0.06687">
        <ele>727.5</ele>
        <time>2016-07-31T11:44:20Z</time>
      </trkpt>
      <trkpt lat="42.43552" lon="0.06692">
        <ele>727.2</ele>
        <time>2016-07-31T11:44:21Z</time>
      </trkpt>
      <trkpt lat="42.43552" lon="0.06698">
        <ele>727.6</ele>
        <time>2016-07-31T11:44:22Z</time>
      </trkpt>
      <trkpt lat="42.43552" lon="0.06703">
        <ele>727.7</ele>
        <time>2016-07-31T11:44:24Z</time>
      </trkpt>
      <trkpt lat="42.43552" lon="0.06707">
        <ele>727.5</ele>
        <time>2016-07-31T11:44:25Z</time>
      </trkpt>
      <trkpt lat="42.43553" lon="0.06712">
        <ele>726.6</ele>
        <time>2016-07-31T11:44:26Z</time>
      </trkpt>
      <trkpt lat="42.43554" lon="0.06716">
        <ele>725.7</ele>
        <time>2016-07-31T11:44:27Z</time>
      </trkpt>
      <trkpt lat="42.43554" lon="0.0672">
        <ele>724.9</ele>
        <time>2016-07-31T11:44:28Z</time>
      </trkpt>
      <trkpt lat="42.43555" lon="0.06724">
        <ele>724</ele>
        <time>2016-07-31T11:44:29Z</time>
      </trkpt>
      <trkpt lat="42.43557" lon="0.0673">
        <ele>722.5</ele>
        <time>2016-07-31T11:44:30Z</time>
      </trkpt>
      <trkpt lat="42.43559" lon="0.06735">
        <ele>720.6</ele>
        <time>2016-07-31T11:44:31Z</time>
      </trkpt>
      <trkpt lat="42.43561" lon="0.06741">
        <ele>718.7</ele>
        <time>2016-07-31T11:44:32Z</time>
      </trkpt>
      <trkpt lat="42.43563" lon="0.06747">
        <ele>716.8</ele>
        <time>2016-07-31T11:44:33Z</time>
      </trkpt>
      <trkpt lat="42.43564" lon="0.06752">
        <ele>715.6</ele>
        <time>2016-07-31T11:44:34Z</time>
      </trkpt>
      <trkpt lat="42.43565" lon="0.06756">
        <ele>714.5</ele>
        <time>2016-07-31T11:44:35Z</time>
      </trkpt>
      <trkpt lat="42.43567" lon="0.0676">
        <ele>713.2</ele>
        <time>2016-07-31T11:44:36Z</time>
      </trkpt>
      <trkpt lat="42.43568" lon="0.06763">
        <ele>711.8</ele>
        <time>2016-07-31T11:44:37Z</time>
      </trkpt>
      <trkpt lat="42.4357" lon="0.06767">
        <ele>710.5</ele>
        <time>2016-07-31T11:44:38Z</time>
      </trkpt>
      <trkpt lat="42.43571" lon="0.06771">
        <ele>709.4</ele>
        <time>2016-07-31T11:44:39Z</time>
      </trkpt>
      <trkpt lat="42.43572" lon="0.06775">
        <ele>708.7</ele>
        <time>2016-07-31T11:44:40Z</time>
      </trkpt>
      <trkpt lat="42.43572" lon="0.0678">
        <ele>707.7</ele>
        <time>2016-07-31T11:44:42Z</time>
      </trkpt>
      <trkpt lat="42.43575" lon="0.06786">
        <ele>705.8</ele>
        <time>2016-07-31T11:44:44Z</time>
      </trkpt>
      <trkpt lat="42.43576" lon="0.0679">
        <ele>704.5</ele>
        <time>2016-07-31T11:44:46Z</time>
      </trkpt>
      <trkpt lat="42.43574" lon="0.06793">
        <ele>705.6</ele>
        <time>2016-07-31T11:44:54Z</time>
      </trkpt>
      <trkpt lat="42.43574" lon="0.06797">
        <ele>705.7</ele>
        <time>2016-07-31T11:44:58Z</time>
      </trkpt>
      <trkpt lat="42.43573" lon="0.06801">
        <ele>706.1</ele>
        <time>2016-07-31T11:45:01Z</time>
      </trkpt>
      <trkpt lat="42.43573" lon="0.06806">
        <ele>705.7</ele>
        <time>2016-07-31T11:45:03Z</time>
      </trkpt>
      <trkpt lat="42.43575" lon="0.06811">
        <ele>704.5</ele>
        <time>2016-07-31T11:45:05Z</time>
      </trkpt>
      <trkpt lat="42.43578" lon="0.06817">
        <ele>702.9</ele>
        <time>2016-07-31T11:45:07Z</time>
      </trkpt>
      <trkpt lat="42.4358" lon="0.06821">
        <ele>701.6</ele>
        <time>2016-07-31T11:45:08Z</time>
      </trkpt>
      <trkpt lat="42.43581" lon="0.06825">
        <ele>700.5</ele>
        <time>2016-07-31T11:45:09Z</time>
      </trkpt>
      <trkpt lat="42.43583" lon="0.06831">
        <ele>699.6</ele>
        <time>2016-07-31T11:45:10Z</time>
      </trkpt>
      <trkpt lat="42.43583" lon="0.06835">
        <ele>699.3</ele>
        <time>2016-07-31T11:45:11Z</time>
      </trkpt>
      <trkpt lat="42.43583" lon="0.06841">
        <ele>699.5</ele>
        <time>2016-07-31T11:45:12Z</time>
      </trkpt>
      <trkpt lat="42.43582" lon="0.06846">
        <ele>699.6</ele>
        <time>2016-07-31T11:45:13Z</time>
      </trkpt>
      <trkpt lat="42.43582" lon="0.06851">
        <ele>699.7</ele>
        <time>2016-07-31T11:45:14Z</time>
      </trkpt>
      <trkpt lat="42.43582" lon="0.06857">
        <ele>699.6</ele>
        <time>2016-07-31T11:45:15Z</time>
      </trkpt>
      <trkpt lat="42.43582" lon="0.06863">
        <ele>699.4</ele>
        <time>2016-07-31T11:45:16Z</time>
      </trkpt>
      <trkpt lat="42.43583" lon="0.06868">
        <ele>698.7</ele>
        <time>2016-07-31T11:45:17Z</time>
      </trkpt>
      <trkpt lat="42.43584" lon="0.06873">
        <ele>698.1</ele>
        <time>2016-07-31T11:45:18Z</time>
      </trkpt>
      <trkpt lat="42.43586" lon="0.06878">
        <ele>697.2</ele>
        <time>2016-07-31T11:45:19Z</time>
      </trkpt>
      <trkpt lat="42.43586" lon="0.06884">
        <ele>696.3</ele>
        <time>2016-07-31T11:45:20Z</time>
      </trkpt>
      <trkpt lat="42.43586" lon="0.0689">
        <ele>695.7</ele>
        <time>2016-07-31T11:45:21Z</time>
      </trkpt>
      <trkpt lat="42.43586" lon="0.06895">
        <ele>695</ele>
        <time>2016-07-31T11:45:22Z</time>
      </trkpt>
      <trkpt lat="42.43586" lon="0.06899">
        <ele>694.8</ele>
        <time>2016-07-31T11:45:23Z</time>
      </trkpt>
      <trkpt lat="42.43585" lon="0.06906">
        <ele>694.5</ele>
        <time>2016-07-31T11:45:25Z</time>
      </trkpt>
      <trkpt lat="42.43585" lon="0.0691">
        <ele>694</ele>
        <time>2016-07-31T11:45:26Z</time>
      </trkpt>
      <trkpt lat="42.43586" lon="0.06914">
        <ele>693.2</ele>
        <time>2016-07-31T11:45:27Z</time>
      </trkpt>
      <trkpt lat="42.43588" lon="0.06918">
        <ele>692</ele>
        <time>2016-07-31T11:45:28Z</time>
      </trkpt>
      <trkpt lat="42.43591" lon="0.06924">
        <ele>690.5</ele>
        <time>2016-07-31T11:45:29Z</time>
      </trkpt>
      <trkpt lat="42.43593" lon="0.0693">
        <ele>689.2</ele>
        <time>2016-07-31T11:45:30Z</time>
      </trkpt>
      <trkpt lat="42.43596" lon="0.06937">
        <ele>687.8</ele>
        <time>2016-07-31T11:45:31Z</time>
      </trkpt>
      <trkpt lat="42.43598" lon="0.06945">
        <ele>686.6</ele>
        <time>2016-07-31T11:45:32Z</time>
      </trkpt>
      <trkpt lat="42.43599" lon="0.06953">
        <ele>685.5</ele>
        <time>2016-07-31T11:45:33Z</time>
      </trkpt>
      <trkpt lat="42.436" lon="0.0696">
        <ele>684.7</ele>
        <time>2016-07-31T11:45:34Z</time>
      </trkpt>
      <trkpt lat="42.436" lon="0.06965">
        <ele>683.7</ele>
        <time>2016-07-31T11:45:35Z</time>
      </trkpt>
      <trkpt lat="42.436" lon="0.06971">
        <ele>682.8</ele>
        <time>2016-07-31T11:45:36Z</time>
      </trkpt>
      <trkpt lat="42.43599" lon="0.06976">
        <ele>682.1</ele>
        <time>2016-07-31T11:45:37Z</time>
      </trkpt>
      <trkpt lat="42.43599" lon="0.06982">
        <ele>681.2</ele>
        <time>2016-07-31T11:45:38Z</time>
      </trkpt>
      <trkpt lat="42.43598" lon="0.06986">
        <ele>680.5</ele>
        <time>2016-07-31T11:45:39Z</time>
      </trkpt>
      <trkpt lat="42.43598" lon="0.06991">
        <ele>679.7</ele>
        <time>2016-07-31T11:45:40Z</time>
      </trkpt>
      <trkpt lat="42.43597" lon="0.06996">
        <ele>679</ele>
        <time>2016-07-31T11:45:41Z</time>
      </trkpt>
      <trkpt lat="42.43595" lon="0.07">
        <ele>678.8</ele>
        <time>2016-07-31T11:45:44Z</time>
      </trkpt>
      <trkpt lat="42.43593" lon="0.07004">
        <ele>678.6</ele>
        <time>2016-07-31T11:45:50Z</time>
      </trkpt>
      <trkpt lat="42.43595" lon="0.07008">
        <ele>677.5</ele>
        <time>2016-07-31T11:45:55Z</time>
      </trkpt>
      <trkpt lat="42.43593" lon="0.07012">
        <ele>677.1</ele>
        <time>2016-07-31T11:45:58Z</time>
      </trkpt>
      <trkpt lat="42.43591" lon="0.07017">
        <ele>676.8</ele>
        <time>2016-07-31T11:46:00Z</time>
      </trkpt>
      <trkpt lat="42.43589" lon="0.07022">
        <ele>676</ele>
        <time>2016-07-31T11:46:02Z</time>
      </trkpt>
      <trkpt lat="42.43591" lon="0.07026">
        <ele>674.9</ele>
        <time>2016-07-31T11:46:04Z</time>
      </trkpt>
      <trkpt lat="42.43594" lon="0.07028">
        <ele>674</ele>
        <time>2016-07-31T11:46:06Z</time>
      </trkpt>
      <trkpt lat="42.43597" lon="0.07032">
        <ele>672.9</ele>
        <time>2016-07-31T11:46:08Z</time>
      </trkpt>
      <trkpt lat="42.43596" lon="0.07039">
        <ele>671.8</ele>
        <time>2016-07-31T11:46:10Z</time>
      </trkpt>
      <trkpt lat="42.43594" lon="0.07043">
        <ele>671.2</ele>
        <time>2016-07-31T11:46:11Z</time>
      </trkpt>
      <trkpt lat="42.43593" lon="0.07046">
        <ele>670.5</ele>
        <time>2016-07-31T11:46:12Z</time>
      </trkpt>
      <trkpt lat="42.43592" lon="0.07051">
        <ele>669.4</ele>
        <time>2016-07-31T11:46:14Z</time>
      </trkpt>
      <trkpt lat="42.43595" lon="0.0705">
        <ele>669.2</ele>
        <time>2016-07-31T11:46:18Z</time>
      </trkpt>
      <trkpt lat="42.43597" lon="0.07056">
        <ele>667.2</ele>
        <time>2016-07-31T11:46:21Z</time>
      </trkpt>
      <trkpt lat="42.43597" lon="0.07059">
        <ele>666.1</ele>
        <time>2016-07-31T11:46:22Z</time>
      </trkpt>
      <trkpt lat="42.43596" lon="0.07064">
        <ele>665</ele>
        <time>2016-07-31T11:46:23Z</time>
      </trkpt>
      <trkpt lat="42.43594" lon="0.07069">
        <ele>663.9</ele>
        <time>2016-07-31T11:46:24Z</time>
      </trkpt>
      <trkpt lat="42.43593" lon="0.07073">
        <ele>663</ele>
        <time>2016-07-31T11:46:25Z</time>
      </trkpt>
      <trkpt lat="42.43591" lon="0.07077">
        <ele>662.3</ele>
        <time>2016-07-31T11:46:26Z</time>
      </trkpt>
      <trkpt lat="42.43588" lon="0.07083">
        <ele>660.8</ele>
        <time>2016-07-31T11:46:28Z</time>
      </trkpt>
      <trkpt lat="42.43587" lon="0.07086">
        <ele>660.1</ele>
        <time>2016-07-31T11:46:29Z</time>
      </trkpt>
      <trkpt lat="42.43586" lon="0.0709">
        <ele>659.3</ele>
        <time>2016-07-31T11:46:30Z</time>
      </trkpt>
      <trkpt lat="42.43584" lon="0.07094">
        <ele>658.2</ele>
        <time>2016-07-31T11:46:31Z</time>
      </trkpt>
      <trkpt lat="42.43583" lon="0.071">
        <ele>656.8</ele>
        <time>2016-07-31T11:46:32Z</time>
      </trkpt>
      <trkpt lat="42.43582" lon="0.07105">
        <ele>655.6</ele>
        <time>2016-07-31T11:46:33Z</time>
      </trkpt>
      <trkpt lat="42.43581" lon="0.0711">
        <ele>654.1</ele>
        <time>2016-07-31T11:46:35Z</time>
      </trkpt>
      <trkpt lat="42.43581" lon="0.07115">
        <ele>652.7</ele>
        <time>2016-07-31T11:46:37Z</time>
      </trkpt>
      <trkpt lat="42.43584" lon="0.07116">
        <ele>652.1</ele>
        <time>2016-07-31T11:46:40Z</time>
      </trkpt>
      <trkpt lat="42.43588" lon="0.07112">
        <ele>652.6</ele>
        <time>2016-07-31T11:46:42Z</time>
      </trkpt>
      <trkpt lat="42.43591" lon="0.07112">
        <ele>652.3</ele>
        <time>2016-07-31T11:46:44Z</time>
      </trkpt>
      <trkpt lat="42.43593" lon="0.07118">
        <ele>650.3</ele>
        <time>2016-07-31T11:46:46Z</time>
      </trkpt>
      <trkpt lat="42.43593" lon="0.07122">
        <ele>649.1</ele>
        <time>2016-07-31T11:46:48Z</time>
      </trkpt>
      <trkpt lat="42.43595" lon="0.07125">
        <ele>647.9</ele>
        <time>2016-07-31T11:46:50Z</time>
      </trkpt>
      <trkpt lat="42.43599" lon="0.07127">
        <ele>647.1</ele>
        <time>2016-07-31T11:46:52Z</time>
      </trkpt>
      <trkpt lat="42.43602" lon="0.07128">
        <ele>646.6</ele>
        <time>2016-07-31T11:46:54Z</time>
      </trkpt>
      <trkpt lat="42.43605" lon="0.07127">
        <ele>646.3</ele>
        <time>2016-07-31T11:46:56Z</time>
      </trkpt>
      <trkpt lat="42.43608" lon="0.07126">
        <ele>646</ele>
        <time>2016-07-31T11:46:58Z</time>
      </trkpt>
      <trkpt lat="42.43608" lon="0.07132">
        <ele>645.2</ele>
        <time>2016-07-31T11:47:01Z</time>
      </trkpt>
      <trkpt lat="42.43607" lon="0.07136">
        <ele>644.7</ele>
        <time>2016-07-31T11:47:03Z</time>
      </trkpt>
      <trkpt lat="42.43607" lon="0.0714">
        <ele>644.1</ele>
        <time>2016-07-31T11:47:05Z</time>
      </trkpt>
      <trkpt lat="42.43605" lon="0.07146">
        <ele>643.5</ele>
        <time>2016-07-31T11:47:07Z</time>
      </trkpt>
      <trkpt lat="42.43604" lon="0.07153">
        <ele>642.7</ele>
        <time>2016-07-31T11:47:09Z</time>
      </trkpt>
      <trkpt lat="42.43604" lon="0.07157">
        <ele>642.1</ele>
        <time>2016-07-31T11:47:10Z</time>
      </trkpt>
      <trkpt lat="42.43604" lon="0.07161">
        <ele>641.4</ele>
        <time>2016-07-31T11:47:11Z</time>
      </trkpt>
      <trkpt lat="42.43604" lon="0.07165">
        <ele>640.7</ele>
        <time>2016-07-31T11:47:12Z</time>
      </trkpt>
      <trkpt lat="42.43605" lon="0.07169">
        <ele>640</ele>
        <time>2016-07-31T11:47:13Z</time>
      </trkpt>
      <trkpt lat="42.43606" lon="0.07173">
        <ele>639.4</ele>
        <time>2016-07-31T11:47:14Z</time>
      </trkpt>
      <trkpt lat="42.43607" lon="0.07176">
        <ele>638.7</ele>
        <time>2016-07-31T11:47:15Z</time>
      </trkpt>
      <trkpt lat="42.43608" lon="0.07182">
        <ele>637.8</ele>
        <time>2016-07-31T11:47:17Z</time>
      </trkpt>
      <trkpt lat="42.4361" lon="0.07185">
        <ele>637.1</ele>
        <time>2016-07-31T11:47:20Z</time>
      </trkpt>
      <trkpt lat="42.43613" lon="0.07183">
        <ele>637.1</ele>
        <time>2016-07-31T11:47:24Z</time>
      </trkpt>
      <trkpt lat="42.43615" lon="0.0718">
        <ele>637.3</ele>
        <time>2016-07-31T11:47:28Z</time>
      </trkpt>
      <trkpt lat="42.43615" lon="0.07176">
        <ele>637.8</ele>
        <time>2016-07-31T11:47:32Z</time>
      </trkpt>
      <trkpt lat="42.43616" lon="0.07172">
        <ele>638.3</ele>
        <time>2016-07-31T11:47:37Z</time>
      </trkpt>
      <trkpt lat="42.43618" lon="0.07167">
        <ele>638.8</ele>
        <time>2016-07-31T11:47:41Z</time>
      </trkpt>
      <trkpt lat="42.43621" lon="0.07164">
        <ele>639</ele>
        <time>2016-07-31T11:47:43Z</time>
      </trkpt>
      <trkpt lat="42.43624" lon="0.0716">
        <ele>639.1</ele>
        <time>2016-07-31T11:47:45Z</time>
      </trkpt>
      <trkpt lat="42.43626" lon="0.07157">
        <ele>638.9</ele>
        <time>2016-07-31T11:47:47Z</time>
      </trkpt>
      <trkpt lat="42.43629" lon="0.07154">
        <ele>637.8</ele>
        <time>2016-07-31T11:47:49Z</time>
      </trkpt>
      <trkpt lat="42.43632" lon="0.07153">
        <ele>636.3</ele>
        <time>2016-07-31T11:47:51Z</time>
      </trkpt>
      <trkpt lat="42.43636" lon="0.07157">
        <ele>634.2</ele>
        <time>2016-07-31T11:47:53Z</time>
      </trkpt>
      <trkpt lat="42.43636" lon="0.07163">
        <ele>633.3</ele>
        <time>2016-07-31T11:47:55Z</time>
      </trkpt>
      <trkpt lat="42.43635" lon="0.07167">
        <ele>633.4</ele>
        <time>2016-07-31T11:47:56Z</time>
      </trkpt>
      <trkpt lat="42.43633" lon="0.07171">
        <ele>633.6</ele>
        <time>2016-07-31T11:47:57Z</time>
      </trkpt>
      <trkpt lat="42.43632" lon="0.07175">
        <ele>633.7</ele>
        <time>2016-07-31T11:47:58Z</time>
      </trkpt>
      <trkpt lat="42.43631" lon="0.07179">
        <ele>633.6</ele>
        <time>2016-07-31T11:47:59Z</time>
      </trkpt>
      <trkpt lat="42.43629" lon="0.07183">
        <ele>633.6</ele>
        <time>2016-07-31T11:48:00Z</time>
      </trkpt>
      <trkpt lat="42.43628" lon="0.07189">
        <ele>633.4</ele>
        <time>2016-07-31T11:48:02Z</time>
      </trkpt>
      <trkpt lat="42.43627" lon="0.07194">
        <ele>633.1</ele>
        <time>2016-07-31T11:48:04Z</time>
      </trkpt>
      <trkpt lat="42.43625" lon="0.07199">
        <ele>633.3</ele>
        <time>2016-07-31T11:48:06Z</time>
      </trkpt>
      <trkpt lat="42.43625" lon="0.07204">
        <ele>632.5</ele>
        <time>2016-07-31T11:48:09Z</time>
      </trkpt>
      <trkpt lat="42.43627" lon="0.07208">
        <ele>631.4</ele>
        <time>2016-07-31T11:48:11Z</time>
      </trkpt>
      <trkpt lat="42.43628" lon="0.07214">
        <ele>630</ele>
        <time>2016-07-31T11:48:13Z</time>
      </trkpt>
      <trkpt lat="42.4363" lon="0.07218">
        <ele>629.3</ele>
        <time>2016-07-31T11:48:14Z</time>
      </trkpt>
      <trkpt lat="42.43631" lon="0.07221">
        <ele>628.5</ele>
        <time>2016-07-31T11:48:15Z</time>
      </trkpt>
      <trkpt lat="42.43632" lon="0.07225">
        <ele>627.4</ele>
        <time>2016-07-31T11:48:16Z</time>
      </trkpt>
      <trkpt lat="42.43634" lon="0.0723">
        <ele>626.1</ele>
        <time>2016-07-31T11:48:17Z</time>
      </trkpt>
      <trkpt lat="42.43636" lon="0.07235">
        <ele>624.8</ele>
        <time>2016-07-31T11:48:18Z</time>
      </trkpt>
      <trkpt lat="42.43637" lon="0.07241">
        <ele>623.8</ele>
        <time>2016-07-31T11:48:19Z</time>
      </trkpt>
      <trkpt lat="42.43638" lon="0.07248">
        <ele>623</ele>
        <time>2016-07-31T11:48:20Z</time>
      </trkpt>
      <trkpt lat="42.43637" lon="0.07254">
        <ele>622.7</ele>
        <time>2016-07-31T11:48:21Z</time>
      </trkpt>
      <trkpt lat="42.43637" lon="0.07258">
        <ele>622.7</ele>
        <time>2016-07-31T11:48:22Z</time>
      </trkpt>
      <trkpt lat="42.43635" lon="0.07262">
        <ele>623</ele>
        <time>2016-07-31T11:48:24Z</time>
      </trkpt>
      <trkpt lat="42.43635" lon="0.07266">
        <ele>622.8</ele>
        <time>2016-07-31T11:48:26Z</time>
      </trkpt>
      <trkpt lat="42.43637" lon="0.07269">
        <ele>621.6</ele>
        <time>2016-07-31T11:48:38Z</time>
      </trkpt>
      <trkpt lat="42.43636" lon="0.07272">
        <ele>621.7</ele>
        <time>2016-07-31T11:48:41Z</time>
      </trkpt>
      <trkpt lat="42.43635" lon="0.07279">
        <ele>621.6</ele>
        <time>2016-07-31T11:48:43Z</time>
      </trkpt>
      <trkpt lat="42.43635" lon="0.07283">
        <ele>621.3</ele>
        <time>2016-07-31T11:48:44Z</time>
      </trkpt>
      <trkpt lat="42.43635" lon="0.07287">
        <ele>621.1</ele>
        <time>2016-07-31T11:48:45Z</time>
      </trkpt>
      <trkpt lat="42.43634" lon="0.07291">
        <ele>620.9</ele>
        <time>2016-07-31T11:48:46Z</time>
      </trkpt>
      <trkpt lat="42.43634" lon="0.07295">
        <ele>620.7</ele>
        <time>2016-07-31T11:48:47Z</time>
      </trkpt>
      <trkpt lat="42.43633" lon="0.07298">
        <ele>620.4</ele>
        <time>2016-07-31T11:48:48Z</time>
      </trkpt>
      <trkpt lat="42.43633" lon="0.07302">
        <ele>620.1</ele>
        <time>2016-07-31T11:48:49Z</time>
      </trkpt>
      <trkpt lat="42.43633" lon="0.07306">
        <ele>619.7</ele>
        <time>2016-07-31T11:48:50Z</time>
      </trkpt>
      <trkpt lat="42.43633" lon="0.07312">
        <ele>618.9</ele>
        <time>2016-07-31T11:48:52Z</time>
      </trkpt>
      <trkpt lat="42.43634" lon="0.07317">
        <ele>618</ele>
        <time>2016-07-31T11:48:54Z</time>
      </trkpt>
      <trkpt lat="42.43633" lon="0.07322">
        <ele>617.6</ele>
        <time>2016-07-31T11:48:56Z</time>
      </trkpt>
      <trkpt lat="42.43633" lon="0.07327">
        <ele>617.1</ele>
        <time>2016-07-31T11:48:58Z</time>
      </trkpt>
      <trkpt lat="42.43632" lon="0.07331">
        <ele>616.8</ele>
        <time>2016-07-31T11:49:00Z</time>
      </trkpt>
      <trkpt lat="42.43633" lon="0.07335">
        <ele>616.2</ele>
        <time>2016-07-31T11:49:02Z</time>
      </trkpt>
      <trkpt lat="42.43633" lon="0.07339">
        <ele>615.6</ele>
        <time>2016-07-31T11:49:03Z</time>
      </trkpt>
      <trkpt lat="42.43633" lon="0.07344">
        <ele>615.1</ele>
        <time>2016-07-31T11:49:04Z</time>
      </trkpt>
      <trkpt lat="42.43632" lon="0.07348">
        <ele>614.8</ele>
        <time>2016-07-31T11:49:05Z</time>
      </trkpt>
      <trkpt lat="42.43632" lon="0.07354">
        <ele>614.2</ele>
        <time>2016-07-31T11:49:07Z</time>
      </trkpt>
      <trkpt lat="42.43635" lon="0.07353">
        <ele>613.1</ele>
        <time>2016-07-31T11:49:10Z</time>
      </trkpt>
      <trkpt lat="42.43636" lon="0.07347">
        <ele>613.4</ele>
        <time>2016-07-31T11:49:12Z</time>
      </trkpt>
      <trkpt lat="42.43636" lon="0.07342">
        <ele>613.9</ele>
        <time>2016-07-31T11:49:14Z</time>
      </trkpt>
      <trkpt lat="42.43637" lon="0.07338">
        <ele>614.2</ele>
        <time>2016-07-31T11:49:16Z</time>
      </trkpt>
      <trkpt lat="42.43637" lon="0.07334">
        <ele>614.4</ele>
        <time>2016-07-31T11:49:18Z</time>
      </trkpt>
      <trkpt lat="42.43638" lon="0.0733">
        <ele>614.8</ele>
        <time>2016-07-31T11:49:26Z</time>
      </trkpt>
      <trkpt lat="42.43638" lon="0.07325">
        <ele>615</ele>
        <time>2016-07-31T11:49:28Z</time>
      </trkpt>
      <trkpt lat="42.4364" lon="0.07318">
        <ele>615.4</ele>
        <time>2016-07-31T11:49:30Z</time>
      </trkpt>
      <trkpt lat="42.4364" lon="0.07314">
        <ele>615.6</ele>
        <time>2016-07-31T11:49:31Z</time>
      </trkpt>
      <trkpt lat="42.43641" lon="0.07308">
        <ele>615.7</ele>
        <time>2016-07-31T11:49:33Z</time>
      </trkpt>
      <trkpt lat="42.43643" lon="0.07303">
        <ele>615.8</ele>
        <time>2016-07-31T11:49:35Z</time>
      </trkpt>
      <trkpt lat="42.43644" lon="0.07296">
        <ele>615.9</ele>
        <time>2016-07-31T11:49:37Z</time>
      </trkpt>
      <trkpt lat="42.43646" lon="0.0729">
        <ele>615.8</ele>
        <time>2016-07-31T11:49:39Z</time>
      </trkpt>
      <trkpt lat="42.43648" lon="0.07283">
        <ele>615.1</ele>
        <time>2016-07-31T11:49:41Z</time>
      </trkpt>
      <trkpt lat="42.4365" lon="0.07279">
        <ele>614.9</ele>
        <time>2016-07-31T11:49:42Z</time>
      </trkpt>
      <trkpt lat="42.43651" lon="0.07275">
        <ele>614.7</ele>
        <time>2016-07-31T11:49:43Z</time>
      </trkpt>
      <trkpt lat="42.43652" lon="0.0727">
        <ele>614.7</ele>
        <time>2016-07-31T11:49:44Z</time>
      </trkpt>
      <trkpt lat="42.43653" lon="0.07264">
        <ele>614.8</ele>
        <time>2016-07-31T11:49:45Z</time>
      </trkpt>
      <trkpt lat="42.43654" lon="0.07258">
        <ele>615</ele>
        <time>2016-07-31T11:49:46Z</time>
      </trkpt>
      <trkpt lat="42.43654" lon="0.07251">
        <ele>615.4</ele>
        <time>2016-07-31T11:49:47Z</time>
      </trkpt>
      <trkpt lat="42.43655" lon="0.07245">
        <ele>615.8</ele>
        <time>2016-07-31T11:49:48Z</time>
      </trkpt>
      <trkpt lat="42.43655" lon="0.07238">
        <ele>616.5</ele>
        <time>2016-07-31T11:49:49Z</time>
      </trkpt>
      <trkpt lat="42.43654" lon="0.07232">
        <ele>617.3</ele>
        <time>2016-07-31T11:49:50Z</time>
      </trkpt>
      <trkpt lat="42.43653" lon="0.07226">
        <ele>618.3</ele>
        <time>2016-07-31T11:49:51Z</time>
      </trkpt>
      <trkpt lat="42.43652" lon="0.0722">
        <ele>619.1</ele>
        <time>2016-07-31T11:49:52Z</time>
      </trkpt>
      <trkpt lat="42.43653" lon="0.07214">
        <ele>619.5</ele>
        <time>2016-07-31T11:49:53Z</time>
      </trkpt>
      <trkpt lat="42.43654" lon="0.07208">
        <ele>619.7</ele>
        <time>2016-07-31T11:49:54Z</time>
      </trkpt>
      <trkpt lat="42.43655" lon="0.07202">
        <ele>619.6</ele>
        <time>2016-07-31T11:49:55Z</time>
      </trkpt>
      <trkpt lat="42.43658" lon="0.07196">
        <ele>619.3</ele>
        <time>2016-07-31T11:49:56Z</time>
      </trkpt>
      <trkpt lat="42.4366" lon="0.07189">
        <ele>618.9</ele>
        <time>2016-07-31T11:49:57Z</time>
      </trkpt>
      <trkpt lat="42.43663" lon="0.07183">
        <ele>618.4</ele>
        <time>2016-07-31T11:49:58Z</time>
      </trkpt>
      <trkpt lat="42.43665" lon="0.07176">
        <ele>618</ele>
        <time>2016-07-31T11:49:59Z</time>
      </trkpt>
      <trkpt lat="42.43666" lon="0.07169">
        <ele>617.9</ele>
        <time>2016-07-31T11:50:00Z</time>
      </trkpt>
      <trkpt lat="42.43667" lon="0.07162">
        <ele>618.1</ele>
        <time>2016-07-31T11:50:01Z</time>
      </trkpt>
      <trkpt lat="42.43668" lon="0.07155">
        <ele>618.4</ele>
        <time>2016-07-31T11:50:02Z</time>
      </trkpt>
      <trkpt lat="42.43668" lon="0.07148">
        <ele>619</ele>
        <time>2016-07-31T11:50:03Z</time>
      </trkpt>
      <trkpt lat="42.43668" lon="0.07143">
        <ele>619.6</ele>
        <time>2016-07-31T11:50:04Z</time>
      </trkpt>
      <trkpt lat="42.43667" lon="0.07137">
        <ele>620.5</ele>
        <time>2016-07-31T11:50:05Z</time>
      </trkpt>
      <trkpt lat="42.43666" lon="0.07133">
        <ele>621.5</ele>
        <time>2016-07-31T11:50:06Z</time>
      </trkpt>
      <trkpt lat="42.43665" lon="0.07129">
        <ele>622.3</ele>
        <time>2016-07-31T11:50:07Z</time>
      </trkpt>
      <trkpt lat="42.43663" lon="0.07123">
        <ele>624.1</ele>
        <time>2016-07-31T11:50:09Z</time>
      </trkpt>
      <trkpt lat="42.43662" lon="0.07119">
        <ele>625.7</ele>
        <time>2016-07-31T11:50:11Z</time>
      </trkpt>
      <trkpt lat="42.4366" lon="0.07114">
        <ele>627.5</ele>
        <time>2016-07-31T11:50:13Z</time>
      </trkpt>
      <trkpt lat="42.4366" lon="0.07109">
        <ele>628.9</ele>
        <time>2016-07-31T11:50:15Z</time>
      </trkpt>
      <trkpt lat="42.4366" lon="0.07103">
        <ele>629.8</ele>
        <time>2016-07-31T11:50:17Z</time>
      </trkpt>
      <trkpt lat="42.4366" lon="0.07098">
        <ele>630.6</ele>
        <time>2016-07-31T11:50:19Z</time>
      </trkpt>
      <trkpt lat="42.4366" lon="0.07093">
        <ele>631.5</ele>
        <time>2016-07-31T11:50:21Z</time>
      </trkpt>
      <trkpt lat="42.4366" lon="0.07088">
        <ele>632.3</ele>
        <time>2016-07-31T11:50:23Z</time>
      </trkpt>
      <trkpt lat="42.43661" lon="0.07083">
        <ele>632.9</ele>
        <time>2016-07-31T11:50:25Z</time>
      </trkpt>
      <trkpt lat="42.43661" lon="0.07078">
        <ele>633.7</ele>
        <time>2016-07-31T11:50:27Z</time>
      </trkpt>
      <trkpt lat="42.43661" lon="0.07074">
        <ele>634.7</ele>
        <time>2016-07-31T11:50:29Z</time>
      </trkpt>
      <trkpt lat="42.4366" lon="0.07069">
        <ele>636</ele>
        <time>2016-07-31T11:50:31Z</time>
      </trkpt>
      <trkpt lat="42.43659" lon="0.07065">
        <ele>637.4</ele>
        <time>2016-07-31T11:50:33Z</time>
      </trkpt>
      <trkpt lat="42.43659" lon="0.0706">
        <ele>638.7</ele>
        <time>2016-07-31T11:50:35Z</time>
      </trkpt>
      <trkpt lat="42.43659" lon="0.07055">
        <ele>639.5</ele>
        <time>2016-07-31T11:50:37Z</time>
      </trkpt>
      <trkpt lat="42.4366" lon="0.0705">
        <ele>639.7</ele>
        <time>2016-07-31T11:50:39Z</time>
      </trkpt>
      <trkpt lat="42.43661" lon="0.07045">
        <ele>640.2</ele>
        <time>2016-07-31T11:50:41Z</time>
      </trkpt>
      <trkpt lat="42.43661" lon="0.0704">
        <ele>640.4</ele>
        <time>2016-07-31T11:50:43Z</time>
      </trkpt>
      <trkpt lat="42.43662" lon="0.07035">
        <ele>640.4</ele>
        <time>2016-07-31T11:50:45Z</time>
      </trkpt>
      <trkpt lat="42.43663" lon="0.07031">
        <ele>640.2</ele>
        <time>2016-07-31T11:50:47Z</time>
      </trkpt>
      <trkpt lat="42.43665" lon="0.07024">
        <ele>640</ele>
        <time>2016-07-31T11:50:49Z</time>
      </trkpt>
      <trkpt lat="42.43666" lon="0.0702">
        <ele>639.9</ele>
        <time>2016-07-31T11:50:50Z</time>
      </trkpt>
      <trkpt lat="42.43667" lon="0.07014">
        <ele>639.7</ele>
        <time>2016-07-31T11:50:51Z</time>
      </trkpt>
      <trkpt lat="42.43667" lon="0.07009">
        <ele>639.8</ele>
        <time>2016-07-31T11:50:52Z</time>
      </trkpt>
      <trkpt lat="42.43668" lon="0.07004">
        <ele>639.8</ele>
        <time>2016-07-31T11:50:53Z</time>
      </trkpt>
      <trkpt lat="42.43669" lon="0.06999">
        <ele>640</ele>
        <time>2016-07-31T11:50:54Z</time>
      </trkpt>
      <trkpt lat="42.43669" lon="0.06994">
        <ele>640</ele>
        <time>2016-07-31T11:50:55Z</time>
      </trkpt>
      <trkpt lat="42.4367" lon="0.0699">
        <ele>640.1</ele>
        <time>2016-07-31T11:50:56Z</time>
      </trkpt>
      <trkpt lat="42.4367" lon="0.06986">
        <ele>640.4</ele>
        <time>2016-07-31T11:50:57Z</time>
      </trkpt>
      <trkpt lat="42.4367" lon="0.06979">
        <ele>641.1</ele>
        <time>2016-07-31T11:50:59Z</time>
      </trkpt>
      <trkpt lat="42.4367" lon="0.06974">
        <ele>641.9</ele>
        <time>2016-07-31T11:51:01Z</time>
      </trkpt>
      <trkpt lat="42.43669" lon="0.0697">
        <ele>642.7</ele>
        <time>2016-07-31T11:51:03Z</time>
      </trkpt>
      <trkpt lat="42.43669" lon="0.06966">
        <ele>643.1</ele>
        <time>2016-07-31T11:51:05Z</time>
      </trkpt>
      <trkpt lat="42.4367" lon="0.06961">
        <ele>643.4</ele>
        <time>2016-07-31T11:51:07Z</time>
      </trkpt>
      <trkpt lat="42.4367" lon="0.06957">
        <ele>643.3</ele>
        <time>2016-07-31T11:51:09Z</time>
      </trkpt>
      <trkpt lat="42.43672" lon="0.06952">
        <ele>642.5</ele>
        <time>2016-07-31T11:51:11Z</time>
      </trkpt>
      <trkpt lat="42.43673" lon="0.06947">
        <ele>642</ele>
        <time>2016-07-31T11:51:13Z</time>
      </trkpt>
      <trkpt lat="42.43673" lon="0.06944">
        <ele>641.7</ele>
        <time>2016-07-31T11:51:15Z</time>
      </trkpt>
      <trkpt lat="42.43674" lon="0.06938">
        <ele>641.3</ele>
        <time>2016-07-31T11:51:18Z</time>
      </trkpt>
      <trkpt lat="42.43675" lon="0.06934">
        <ele>640.8</ele>
        <time>2016-07-31T11:51:20Z</time>
      </trkpt>
      <trkpt lat="42.43677" lon="0.06926">
        <ele>640.1</ele>
        <time>2016-07-31T11:51:22Z</time>
      </trkpt>
      <trkpt lat="42.43678" lon="0.06921">
        <ele>639.5</ele>
        <time>2016-07-31T11:51:23Z</time>
      </trkpt>
      <trkpt lat="42.43679" lon="0.06916">
        <ele>638.9</ele>
        <time>2016-07-31T11:51:24Z</time>
      </trkpt>
      <trkpt lat="42.43681" lon="0.0691">
        <ele>638</ele>
        <time>2016-07-31T11:51:25Z</time>
      </trkpt>
      <trkpt lat="42.43682" lon="0.06905">
        <ele>637.5</ele>
        <time>2016-07-31T11:51:26Z</time>
      </trkpt>
      <trkpt lat="42.43683" lon="0.06899">
        <ele>636.9</ele>
        <time>2016-07-31T11:51:27Z</time>
      </trkpt>
      <trkpt lat="42.43686" lon="0.06892">
        <ele>635.5</ele>
        <time>2016-07-31T11:51:28Z</time>
      </trkpt>
      <trkpt lat="42.43689" lon="0.06886">
        <ele>633.5</ele>
        <time>2016-07-31T11:51:29Z</time>
      </trkpt>
      <trkpt lat="42.43694" lon="0.06879">
        <ele>630.6</ele>
        <time>2016-07-31T11:51:30Z</time>
      </trkpt>
      <trkpt lat="42.43699" lon="0.06871">
        <ele>627.5</ele>
        <time>2016-07-31T11:51:31Z</time>
      </trkpt>
      <trkpt lat="42.43704" lon="0.06864">
        <ele>624.6</ele>
        <time>2016-07-31T11:51:32Z</time>
      </trkpt>
      <trkpt lat="42.43708" lon="0.06856">
        <ele>622.3</ele>
        <time>2016-07-31T11:51:33Z</time>
      </trkpt>
      <trkpt lat="42.4371" lon="0.06847">
        <ele>621.3</ele>
        <time>2016-07-31T11:51:34Z</time>
      </trkpt>
      <trkpt lat="42.43713" lon="0.06841">
        <ele>620.5</ele>
        <time>2016-07-31T11:51:35Z</time>
      </trkpt>
      <trkpt lat="42.43714" lon="0.06836">
        <ele>620.2</ele>
        <time>2016-07-31T11:51:36Z</time>
      </trkpt>
      <trkpt lat="42.43716" lon="0.06832">
        <ele>619.8</ele>
        <time>2016-07-31T11:51:37Z</time>
      </trkpt>
      <trkpt lat="42.43718" lon="0.06828">
        <ele>619.4</ele>
        <time>2016-07-31T11:51:38Z</time>
      </trkpt>
      <trkpt lat="42.4372" lon="0.06824">
        <ele>618.8</ele>
        <time>2016-07-31T11:51:39Z</time>
      </trkpt>
      <trkpt lat="42.43722" lon="0.0682">
        <ele>618.1</ele>
        <time>2016-07-31T11:51:40Z</time>
      </trkpt>
      <trkpt lat="42.43725" lon="0.06816">
        <ele>617.5</ele>
        <time>2016-07-31T11:51:41Z</time>
      </trkpt>
      <trkpt lat="42.43727" lon="0.06812">
        <ele>616.8</ele>
        <time>2016-07-31T11:51:42Z</time>
      </trkpt>
      <trkpt lat="42.4373" lon="0.06807">
        <ele>616.1</ele>
        <time>2016-07-31T11:51:43Z</time>
      </trkpt>
      <trkpt lat="42.43734" lon="0.06802">
        <ele>615.3</ele>
        <time>2016-07-31T11:51:44Z</time>
      </trkpt>
      <trkpt lat="42.43738" lon="0.06797">
        <ele>614.5</ele>
        <time>2016-07-31T11:51:45Z</time>
      </trkpt>
      <trkpt lat="42.43742" lon="0.06792">
        <ele>613.6</ele>
        <time>2016-07-31T11:51:46Z</time>
      </trkpt>
      <trkpt lat="42.43746" lon="0.06787">
        <ele>612.9</ele>
        <time>2016-07-31T11:51:47Z</time>
      </trkpt>
      <trkpt lat="42.4375" lon="0.06782">
        <ele>612.1</ele>
        <time>2016-07-31T11:51:48Z</time>
      </trkpt>
      <trkpt lat="42.43755" lon="0.06779">
        <ele>611.2</ele>
        <time>2016-07-31T11:51:49Z</time>
      </trkpt>
      <trkpt lat="42.4376" lon="0.06775">
        <ele>610.2</ele>
        <time>2016-07-31T11:51:50Z</time>
      </trkpt>
      <trkpt lat="42.43765" lon="0.06772">
        <ele>609</ele>
        <time>2016-07-31T11:51:51Z</time>
      </trkpt>
      <trkpt lat="42.4377" lon="0.0677">
        <ele>607.7</ele>
        <time>2016-07-31T11:51:52Z</time>
      </trkpt>
      <trkpt lat="42.43775" lon="0.06768">
        <ele>606.3</ele>
        <time>2016-07-31T11:51:53Z</time>
      </trkpt>
      <trkpt lat="42.4378" lon="0.06767">
        <ele>604.8</ele>
        <time>2016-07-31T11:51:54Z</time>
      </trkpt>
      <trkpt lat="42.43786" lon="0.06765">
        <ele>603.4</ele>
        <time>2016-07-31T11:51:55Z</time>
      </trkpt>
      <trkpt lat="42.4379" lon="0.06762">
        <ele>602.4</ele>
        <time>2016-07-31T11:51:56Z</time>
      </trkpt>
      <trkpt lat="42.43794" lon="0.06757">
        <ele>602.3</ele>
        <time>2016-07-31T11:51:57Z</time>
      </trkpt>
      <trkpt lat="42.43797" lon="0.0675">
        <ele>602.9</ele>
        <time>2016-07-31T11:51:58Z</time>
      </trkpt>
      <trkpt lat="42.43798" lon="0.06743">
        <ele>603.7</ele>
        <time>2016-07-31T11:51:59Z</time>
      </trkpt>
      <trkpt lat="42.43799" lon="0.06735">
        <ele>604.6</ele>
        <time>2016-07-31T11:52:00Z</time>
      </trkpt>
      <trkpt lat="42.438" lon="0.06727">
        <ele>605.4</ele>
        <time>2016-07-31T11:52:01Z</time>
      </trkpt>
      <trkpt lat="42.438" lon="0.06721">
        <ele>606.1</ele>
        <time>2016-07-31T11:52:02Z</time>
      </trkpt>
      <trkpt lat="42.43801" lon="0.06716">
        <ele>606.7</ele>
        <time>2016-07-31T11:52:03Z</time>
      </trkpt>
      <trkpt lat="42.43803" lon="0.06711">
        <ele>607</ele>
        <time>2016-07-31T11:52:04Z</time>
      </trkpt>
      <trkpt lat="42.43805" lon="0.06707">
        <ele>607.2</ele>
        <time>2016-07-31T11:52:05Z</time>
      </trkpt>
      <trkpt lat="42.43806" lon="0.06705">
        <ele>607.1</ele>
        <time>2016-07-31T11:52:06Z</time>
      </trkpt>
      <trkpt lat="42.43811" lon="0.06702">
        <ele>606.7</ele>
        <time>2016-07-31T11:52:08Z</time>
      </trkpt>
      <trkpt lat="42.43814" lon="0.06706">
        <ele>605.9</ele>
        <time>2016-07-31T11:52:09Z</time>
      </trkpt>
      <trkpt lat="42.43818" lon="0.06712">
        <ele>604.8</ele>
        <time>2016-07-31T11:52:10Z</time>
      </trkpt>
      <trkpt lat="42.43821" lon="0.06719">
        <ele>603.5</ele>
        <time>2016-07-31T11:52:11Z</time>
      </trkpt>
      <trkpt lat="42.43824" lon="0.06727">
        <ele>602.2</ele>
        <time>2016-07-31T11:52:12Z</time>
      </trkpt>
      <trkpt lat="42.43828" lon="0.06732">
        <ele>601.2</ele>
        <time>2016-07-31T11:52:13Z</time>
      </trkpt>
      <trkpt lat="42.43831" lon="0.06736">
        <ele>600.3</ele>
        <time>2016-07-31T11:52:14Z</time>
      </trkpt>
      <trkpt lat="42.43835" lon="0.06739">
        <ele>599.5</ele>
        <time>2016-07-31T11:52:15Z</time>
      </trkpt>
      <trkpt lat="42.4384" lon="0.0674">
        <ele>598.8</ele>
        <time>2016-07-31T11:52:16Z</time>
      </trkpt>
      <trkpt lat="42.43845" lon="0.0674">
        <ele>598.2</ele>
        <time>2016-07-31T11:52:17Z</time>
      </trkpt>
      <trkpt lat="42.4385" lon="0.06738">
        <ele>597.7</ele>
        <time>2016-07-31T11:52:18Z</time>
      </trkpt>
      <trkpt lat="42.43855" lon="0.06737">
        <ele>597.2</ele>
        <time>2016-07-31T11:52:19Z</time>
      </trkpt>
      <trkpt lat="42.4386" lon="0.06736">
        <ele>596.7</ele>
        <time>2016-07-31T11:52:20Z</time>
      </trkpt>
      <trkpt lat="42.43865" lon="0.06734">
        <ele>596.1</ele>
        <time>2016-07-31T11:52:21Z</time>
      </trkpt>
      <trkpt lat="42.4387" lon="0.06733">
        <ele>595.6</ele>
        <time>2016-07-31T11:52:22Z</time>
      </trkpt>
      <trkpt lat="42.43876" lon="0.06731">
        <ele>595.1</ele>
        <time>2016-07-31T11:52:23Z</time>
      </trkpt>
      <trkpt lat="42.43882" lon="0.06729">
        <ele>595.3</ele>
        <time>2016-07-31T11:52:24Z</time>
      </trkpt>
      <trkpt lat="42.43888" lon="0.06727">
        <ele>595.5</ele>
        <time>2016-07-31T11:52:25Z</time>
      </trkpt>
      <trkpt lat="42.43893" lon="0.06726">
        <ele>595.7</ele>
        <time>2016-07-31T11:52:26Z</time>
      </trkpt>
      <trkpt lat="42.43899" lon="0.06725">
        <ele>595.9</ele>
        <time>2016-07-31T11:52:27Z</time>
      </trkpt>
      <trkpt lat="42.43905" lon="0.06724">
        <ele>596.1</ele>
        <time>2016-07-31T11:52:28Z</time>
      </trkpt>
      <trkpt lat="42.43911" lon="0.06724">
        <ele>596.1</ele>
        <time>2016-07-31T11:52:29Z</time>
      </trkpt>
      <trkpt lat="42.43917" lon="0.06724">
        <ele>596.2</ele>
        <time>2016-07-31T11:52:30Z</time>
      </trkpt>
      <trkpt lat="42.43922" lon="0.06723">
        <ele>596.4</ele>
        <time>2016-07-31T11:52:31Z</time>
      </trkpt>
      <trkpt lat="42.43928" lon="0.06721">
        <ele>596.7</ele>
        <time>2016-07-31T11:52:32Z</time>
      </trkpt>
      <trkpt lat="42.43934" lon="0.06719">
        <ele>597</ele>
        <time>2016-07-31T11:52:33Z</time>
      </trkpt>
      <trkpt lat="42.43939" lon="0.06718">
        <ele>597.2</ele>
        <time>2016-07-31T11:52:34Z</time>
      </trkpt>
      <trkpt lat="42.43944" lon="0.06716">
        <ele>597.6</ele>
        <time>2016-07-31T11:52:35Z</time>
      </trkpt>
      <trkpt lat="42.43949" lon="0.06715">
        <ele>597.9</ele>
        <time>2016-07-31T11:52:36Z</time>
      </trkpt>
      <trkpt lat="42.43954" lon="0.06713">
        <ele>598.3</ele>
        <time>2016-07-31T11:52:37Z</time>
      </trkpt>
      <trkpt lat="42.43959" lon="0.0671">
        <ele>598.7</ele>
        <time>2016-07-31T11:52:38Z</time>
      </trkpt>
      <trkpt lat="42.43964" lon="0.0671">
        <ele>598.6</ele>
        <time>2016-07-31T11:52:39Z</time>
      </trkpt>
      <trkpt lat="42.43968" lon="0.06707">
        <ele>598.7</ele>
        <time>2016-07-31T11:52:40Z</time>
      </trkpt>
      <trkpt lat="42.43973" lon="0.06705">
        <ele>598.9</ele>
        <time>2016-07-31T11:52:41Z</time>
      </trkpt>
      <trkpt lat="42.43976" lon="0.06702">
        <ele>599</ele>
        <time>2016-07-31T11:52:42Z</time>
      </trkpt>
      <trkpt lat="42.4398" lon="0.067">
        <ele>599.1</ele>
        <time>2016-07-31T11:52:43Z</time>
      </trkpt>
      <trkpt lat="42.43983" lon="0.06694">
        <ele>599.6</ele>
        <time>2016-07-31T11:52:44Z</time>
      </trkpt>
      <trkpt lat="42.43987" lon="0.06692">
        <ele>599.7</ele>
        <time>2016-07-31T11:52:45Z</time>
      </trkpt>
      <trkpt lat="42.4399" lon="0.0669">
        <ele>599.7</ele>
        <time>2016-07-31T11:52:46Z</time>
      </trkpt>
      <trkpt lat="42.43993" lon="0.06688">
        <ele>599.9</ele>
        <time>2016-07-31T11:52:47Z</time>
      </trkpt>
      <trkpt lat="42.43995" lon="0.06686">
        <ele>600</ele>
        <time>2016-07-31T11:52:48Z</time>
      </trkpt>
      <trkpt lat="42.43998" lon="0.06684">
        <ele>600.1</ele>
        <time>2016-07-31T11:52:49Z</time>
      </trkpt>
      <trkpt lat="42.44001" lon="0.06683">
        <ele>600</ele>
        <time>2016-07-31T11:52:50Z</time>
      </trkpt>
      <trkpt lat="42.44004" lon="0.06682">
        <ele>600</ele>
        <time>2016-07-31T11:52:51Z</time>
      </trkpt>
      <trkpt lat="42.44009" lon="0.06682">
        <ele>599.8</ele>
        <time>2016-07-31T11:52:53Z</time>
      </trkpt>
      <trkpt lat="42.44012" lon="0.06682">
        <ele>599.7</ele>
        <time>2016-07-31T11:52:54Z</time>
      </trkpt>
      <trkpt lat="42.44015" lon="0.06683">
        <ele>599.4</ele>
        <time>2016-07-31T11:52:55Z</time>
      </trkpt>
      <trkpt lat="42.44019" lon="0.06685">
        <ele>599.2</ele>
        <time>2016-07-31T11:52:56Z</time>
      </trkpt>
      <trkpt lat="42.44023" lon="0.06686">
        <ele>598.9</ele>
        <time>2016-07-31T11:52:57Z</time>
      </trkpt>
      <trkpt lat="42.44029" lon="0.06687">
        <ele>598.6</ele>
        <time>2016-07-31T11:52:58Z</time>
      </trkpt>
      <trkpt lat="42.44035" lon="0.06686">
        <ele>598.4</ele>
        <time>2016-07-31T11:52:59Z</time>
      </trkpt>
      <trkpt lat="42.44042" lon="0.06688">
        <ele>598</ele>
        <time>2016-07-31T11:53:00Z</time>
      </trkpt>
      <trkpt lat="42.44049" lon="0.06688">
        <ele>597.8</ele>
        <time>2016-07-31T11:53:01Z</time>
      </trkpt>
      <trkpt lat="42.44055" lon="0.06687">
        <ele>597.8</ele>
        <time>2016-07-31T11:53:02Z</time>
      </trkpt>
      <trkpt lat="42.4406" lon="0.06687">
        <ele>597.7</ele>
        <time>2016-07-31T11:53:03Z</time>
      </trkpt>
      <trkpt lat="42.44066" lon="0.06687">
        <ele>597.7</ele>
        <time>2016-07-31T11:53:04Z</time>
      </trkpt>
      <trkpt lat="42.4407" lon="0.06687">
        <ele>597.6</ele>
        <time>2016-07-31T11:53:05Z</time>
      </trkpt>
      <trkpt lat="42.44074" lon="0.06686">
        <ele>597.6</ele>
        <time>2016-07-31T11:53:06Z</time>
      </trkpt>
      <trkpt lat="42.44078" lon="0.06685">
        <ele>597.7</ele>
        <time>2016-07-31T11:53:07Z</time>
      </trkpt>
      <trkpt lat="42.44082" lon="0.06685">
        <ele>597.6</ele>
        <time>2016-07-31T11:53:08Z</time>
      </trkpt>
      <trkpt lat="42.44085" lon="0.06685">
        <ele>597.6</ele>
        <time>2016-07-31T11:53:09Z</time>
      </trkpt>
      <trkpt lat="42.44088" lon="0.06686">
        <ele>597.4</ele>
        <time>2016-07-31T11:53:10Z</time>
      </trkpt>
      <trkpt lat="42.44091" lon="0.06686">
        <ele>597.4</ele>
        <time>2016-07-31T11:53:11Z</time>
      </trkpt>
      <trkpt lat="42.44094" lon="0.06686">
        <ele>597.4</ele>
        <time>2016-07-31T11:53:12Z</time>
      </trkpt>
      <trkpt lat="42.44097" lon="0.06685">
        <ele>597.4</ele>
        <time>2016-07-31T11:53:13Z</time>
      </trkpt>
      <trkpt lat="42.44101" lon="0.06685">
        <ele>597.3</ele>
        <time>2016-07-31T11:53:14Z</time>
      </trkpt>
      <trkpt lat="42.44104" lon="0.06686">
        <ele>597.2</ele>
        <time>2016-07-31T11:53:15Z</time>
      </trkpt>
      <trkpt lat="42.44108" lon="0.06686">
        <ele>597.1</ele>
        <time>2016-07-31T11:53:16Z</time>
      </trkpt>
      <trkpt lat="42.44111" lon="0.06687">
        <ele>597</ele>
        <time>2016-07-31T11:53:17Z</time>
      </trkpt>
      <trkpt lat="42.44114" lon="0.06687">
        <ele>597</ele>
        <time>2016-07-31T11:53:18Z</time>
      </trkpt>
      <trkpt lat="42.44118" lon="0.06687">
        <ele>596.9</ele>
        <time>2016-07-31T11:53:19Z</time>
      </trkpt>
      <trkpt lat="42.44122" lon="0.06687">
        <ele>596.8</ele>
        <time>2016-07-31T11:53:20Z</time>
      </trkpt>
      <trkpt lat="42.44125" lon="0.06687">
        <ele>596.8</ele>
        <time>2016-07-31T11:53:21Z</time>
      </trkpt>
      <trkpt lat="42.44129" lon="0.06687">
        <ele>596.8</ele>
        <time>2016-07-31T11:53:22Z</time>
      </trkpt>
      <trkpt lat="42.44132" lon="0.06686">
        <ele>596.9</ele>
        <time>2016-07-31T11:53:23Z</time>
      </trkpt>
      <trkpt lat="42.44136" lon="0.06685">
        <ele>597</ele>
        <time>2016-07-31T11:53:24Z</time>
      </trkpt>
      <trkpt lat="42.44139" lon="0.06684">
        <ele>597</ele>
        <time>2016-07-31T11:53:25Z</time>
      </trkpt>
      <trkpt lat="42.44143" lon="0.06683">
        <ele>597.1</ele>
        <time>2016-07-31T11:53:26Z</time>
      </trkpt>
      <trkpt lat="42.44146" lon="0.06683">
        <ele>597.2</ele>
        <time>2016-07-31T11:53:27Z</time>
      </trkpt>
      <trkpt lat="42.44149" lon="0.06682">
        <ele>597.2</ele>
        <time>2016-07-31T11:53:28Z</time>
      </trkpt>
      <trkpt lat="42.44153" lon="0.06682">
        <ele>597.3</ele>
        <time>2016-07-31T11:53:29Z</time>
      </trkpt>
      <trkpt lat="42.44156" lon="0.06681">
        <ele>597.3</ele>
        <time>2016-07-31T11:53:30Z</time>
      </trkpt>
      <trkpt lat="42.4416" lon="0.06681">
        <ele>597.3</ele>
        <time>2016-07-31T11:53:31Z</time>
      </trkpt>
      <trkpt lat="42.44164" lon="0.0668">
        <ele>597.3</ele>
        <time>2016-07-31T11:53:32Z</time>
      </trkpt>
      <trkpt lat="42.44169" lon="0.0668">
        <ele>597.4</ele>
        <time>2016-07-31T11:53:33Z</time>
      </trkpt>
      <trkpt lat="42.44174" lon="0.06678">
        <ele>597.5</ele>
        <time>2016-07-31T11:53:34Z</time>
      </trkpt>
      <trkpt lat="42.44178" lon="0.06676">
        <ele>597.6</ele>
        <time>2016-07-31T11:53:35Z</time>
      </trkpt>
      <trkpt lat="42.44183" lon="0.06675">
        <ele>597.7</ele>
        <time>2016-07-31T11:53:36Z</time>
      </trkpt>
      <trkpt lat="42.44187" lon="0.06674">
        <ele>597.7</ele>
        <time>2016-07-31T11:53:37Z</time>
      </trkpt>
      <trkpt lat="42.44192" lon="0.06673">
        <ele>597.7</ele>
        <time>2016-07-31T11:53:38Z</time>
      </trkpt>
      <trkpt lat="42.44197" lon="0.06672">
        <ele>597.8</ele>
        <time>2016-07-31T11:53:39Z</time>
      </trkpt>
      <trkpt lat="42.44202" lon="0.06672">
        <ele>597.8</ele>
        <time>2016-07-31T11:53:40Z</time>
      </trkpt>
      <trkpt lat="42.44207" lon="0.06671">
        <ele>597.8</ele>
        <time>2016-07-31T11:53:41Z</time>
      </trkpt>
      <trkpt lat="42.44212" lon="0.06669">
        <ele>597.9</ele>
        <time>2016-07-31T11:53:42Z</time>
      </trkpt>
      <trkpt lat="42.44217" lon="0.06667">
        <ele>598</ele>
        <time>2016-07-31T11:53:43Z</time>
      </trkpt>
      <trkpt lat="42.44221" lon="0.06664">
        <ele>598.1</ele>
        <time>2016-07-31T11:53:44Z</time>
      </trkpt>
      <trkpt lat="42.44225" lon="0.0666">
        <ele>598.3</ele>
        <time>2016-07-31T11:53:45Z</time>
      </trkpt>
      <trkpt lat="42.44228" lon="0.06657">
        <ele>598.4</ele>
        <time>2016-07-31T11:53:46Z</time>
      </trkpt>
      <trkpt lat="42.44232" lon="0.06654">
        <ele>598.6</ele>
        <time>2016-07-31T11:53:47Z</time>
      </trkpt>
      <trkpt lat="42.44235" lon="0.0665">
        <ele>598.8</ele>
        <time>2016-07-31T11:53:48Z</time>
      </trkpt>
      <trkpt lat="42.44239" lon="0.06646">
        <ele>599.1</ele>
        <time>2016-07-31T11:53:49Z</time>
      </trkpt>
      <trkpt lat="42.44242" lon="0.06643">
        <ele>599.3</ele>
        <time>2016-07-31T11:53:50Z</time>
      </trkpt>
      <trkpt lat="42.44246" lon="0.06639">
        <ele>599.6</ele>
        <time>2016-07-31T11:53:51Z</time>
      </trkpt>
      <trkpt lat="42.44249" lon="0.06635">
        <ele>599.8</ele>
        <time>2016-07-31T11:53:52Z</time>
      </trkpt>
      <trkpt lat="42.44253" lon="0.06632">
        <ele>600.1</ele>
        <time>2016-07-31T11:53:53Z</time>
      </trkpt>
      <trkpt lat="42.44256" lon="0.06628">
        <ele>600.4</ele>
        <time>2016-07-31T11:53:54Z</time>
      </trkpt>
      <trkpt lat="42.44259" lon="0.06624">
        <ele>600.7</ele>
        <time>2016-07-31T11:53:55Z</time>
      </trkpt>
      <trkpt lat="42.44263" lon="0.0662">
        <ele>601.1</ele>
        <time>2016-07-31T11:53:56Z</time>
      </trkpt>
      <trkpt lat="42.44267" lon="0.06616">
        <ele>601.5</ele>
        <time>2016-07-31T11:53:57Z</time>
      </trkpt>
      <trkpt lat="42.4427" lon="0.06613">
        <ele>601.8</ele>
        <time>2016-07-31T11:53:58Z</time>
      </trkpt>
      <trkpt lat="42.44274" lon="0.06609">
        <ele>602.2</ele>
        <time>2016-07-31T11:53:59Z</time>
      </trkpt>
      <trkpt lat="42.44278" lon="0.06606">
        <ele>602.5</ele>
        <time>2016-07-31T11:54:00Z</time>
      </trkpt>
      <trkpt lat="42.44282" lon="0.06602">
        <ele>602.9</ele>
        <time>2016-07-31T11:54:01Z</time>
      </trkpt>
      <trkpt lat="42.44286" lon="0.06598">
        <ele>603.2</ele>
        <time>2016-07-31T11:54:02Z</time>
      </trkpt>
      <trkpt lat="42.4429" lon="0.06594">
        <ele>603.6</ele>
        <time>2016-07-31T11:54:03Z</time>
      </trkpt>
      <trkpt lat="42.44294" lon="0.0659">
        <ele>603.8</ele>
        <time>2016-07-31T11:54:04Z</time>
      </trkpt>
      <trkpt lat="42.44299" lon="0.06586">
        <ele>603.8</ele>
        <time>2016-07-31T11:54:05Z</time>
      </trkpt>
      <trkpt lat="42.44304" lon="0.06581">
        <ele>603.9</ele>
        <time>2016-07-31T11:54:06Z</time>
      </trkpt>
      <trkpt lat="42.44308" lon="0.06577">
        <ele>603.9</ele>
        <time>2016-07-31T11:54:07Z</time>
      </trkpt>
      <trkpt lat="42.44313" lon="0.06573">
        <ele>604</ele>
        <time>2016-07-31T11:54:08Z</time>
      </trkpt>
      <trkpt lat="42.44317" lon="0.06569">
        <ele>604</ele>
        <time>2016-07-31T11:54:09Z</time>
      </trkpt>
      <trkpt lat="42.4432" lon="0.06567">
        <ele>603.9</ele>
        <time>2016-07-31T11:54:10Z</time>
      </trkpt>
      <trkpt lat="42.44323" lon="0.06565">
        <ele>603.8</ele>
        <time>2016-07-31T11:54:11Z</time>
      </trkpt>
      <trkpt lat="42.44327" lon="0.06565">
        <ele>603.7</ele>
        <time>2016-07-31T11:54:12Z</time>
      </trkpt>
      <trkpt lat="42.4433" lon="0.06565">
        <ele>603.5</ele>
        <time>2016-07-31T11:54:13Z</time>
      </trkpt>
      <trkpt lat="42.44334" lon="0.06565">
        <ele>603.2</ele>
        <time>2016-07-31T11:54:15Z</time>
      </trkpt>
      <trkpt lat="42.44337" lon="0.06567">
        <ele>602.8</ele>
        <time>2016-07-31T11:54:29Z</time>
      </trkpt>
    </trkseg>
  </trk>
  <trk>
    <name><![CDATA[Ainsa 4 puis un bout 5]]></name>
    <extensions>
      <line xmlns="http://www.topografix.com/GPX/gpx_style/0/2">
        <color>00FF00</color>
        <width>4</width>
      </line>
    </extensions>
    <trkseg>
      <trkpt lat="42.41541" lon="0.1407">
        <ele>538.5</ele>
        <time>2017-07-02T09:19:30Z</time>
      </trkpt>
      <trkpt lat="42.41508" lon="0.14402">
        <ele>525</ele>
        <time>2017-07-02T09:19:36Z</time>
      </trkpt>
      <trkpt lat="42.41511" lon="0.144">
        <ele>525.1</ele>
        <time>2017-07-02T09:19:37Z</time>
      </trkpt>
      <trkpt lat="42.41511" lon="0.14408">
        <ele>525.3</ele>
        <time>2017-07-02T09:19:38Z</time>
      </trkpt>
      <trkpt lat="42.41506" lon="0.14402">
        <ele>525.5</ele>
        <time>2017-07-02T09:19:39Z</time>
      </trkpt>
      <trkpt lat="42.4151" lon="0.1441">
        <ele>525.8</ele>
        <time>2017-07-02T09:19:40Z</time>
      </trkpt>
      <trkpt lat="42.41511" lon="0.14417">
        <ele>526</ele>
        <time>2017-07-02T09:19:41Z</time>
      </trkpt>
      <trkpt lat="42.41518" lon="0.14415">
        <ele>526.2</ele>
        <time>2017-07-02T09:19:46Z</time>
      </trkpt>
      <trkpt lat="42.41514" lon="0.14415">
        <ele>530</ele>
        <time>2017-07-02T09:19:50Z</time>
      </trkpt>
      <trkpt lat="42.41511" lon="0.14414">
        <ele>530</ele>
        <time>2017-07-02T09:19:58Z</time>
      </trkpt>
      <trkpt lat="42.41508" lon="0.14414">
        <ele>530</ele>
        <time>2017-07-02T09:20:01Z</time>
      </trkpt>
      <trkpt lat="42.41502" lon="0.14414">
        <ele>530</ele>
        <time>2017-07-02T09:26:14Z</time>
      </trkpt>
      <trkpt lat="42.41503" lon="0.14418">
        <ele>530</ele>
        <time>2017-07-02T09:26:17Z</time>
      </trkpt>
      <trkpt lat="42.41507" lon="0.1442">
        <ele>530</ele>
        <time>2017-07-02T09:26:21Z</time>
      </trkpt>
      <trkpt lat="42.4151" lon="0.14418">
        <ele>530</ele>
        <time>2017-07-02T09:26:31Z</time>
      </trkpt>
      <trkpt lat="42.41508" lon="0.14422">
        <ele>530</ele>
        <time>2017-07-02T09:26:34Z</time>
      </trkpt>
      <trkpt lat="42.41505" lon="0.14421">
        <ele>530</ele>
        <time>2017-07-02T09:26:36Z</time>
      </trkpt>
      <trkpt lat="42.41502" lon="0.14417">
        <ele>530</ele>
        <time>2017-07-02T09:26:38Z</time>
      </trkpt>
      <trkpt lat="42.41501" lon="0.1441">
        <ele>530</ele>
        <time>2017-07-02T09:26:40Z</time>
      </trkpt>
      <trkpt lat="42.41497" lon="0.14408">
        <ele>530</ele>
        <time>2017-07-02T09:26:42Z</time>
      </trkpt>
      <trkpt lat="42.41495" lon="0.14411">
        <ele>530</ele>
        <time>2017-07-02T09:26:43Z</time>
      </trkpt>
      <trkpt lat="42.41493" lon="0.14415">
        <ele>530</ele>
        <time>2017-07-02T09:26:44Z</time>
      </trkpt>
      <trkpt lat="42.41492" lon="0.14418">
        <ele>530</ele>
        <time>2017-07-02T09:26:45Z</time>
      </trkpt>
      <trkpt lat="42.4149" lon="0.14422">
        <ele>530</ele>
        <time>2017-07-02T09:26:46Z</time>
      </trkpt>
      <trkpt lat="42.41489" lon="0.14426">
        <ele>530</ele>
        <time>2017-07-02T09:26:47Z</time>
      </trkpt>
      <trkpt lat="42.41489" lon="0.14429">
        <ele>530</ele>
        <time>2017-07-02T09:26:48Z</time>
      </trkpt>
      <trkpt lat="42.41488" lon="0.14433">
        <ele>530</ele>
        <time>2017-07-02T09:26:49Z</time>
      </trkpt>
      <trkpt lat="42.41488" lon="0.14437">
        <ele>530</ele>
        <time>2017-07-02T09:26:50Z</time>
      </trkpt>
      <trkpt lat="42.41489" lon="0.14441">
        <ele>530</ele>
        <time>2017-07-02T09:26:51Z</time>
      </trkpt>
      <trkpt lat="42.41491" lon="0.14443">
        <ele>530</ele>
        <time>2017-07-02T09:26:52Z</time>
      </trkpt>
      <trkpt lat="42.41494" lon="0.14445">
        <ele>530</ele>
        <time>2017-07-02T09:26:53Z</time>
      </trkpt>
      <trkpt lat="42.41498" lon="0.14446">
        <ele>530</ele>
        <time>2017-07-02T09:26:54Z</time>
      </trkpt>
      <trkpt lat="42.41501" lon="0.14447">
        <ele>530</ele>
        <time>2017-07-02T09:26:55Z</time>
      </trkpt>
      <trkpt lat="42.41504" lon="0.14448">
        <ele>530</ele>
        <time>2017-07-02T09:26:56Z</time>
      </trkpt>
      <trkpt lat="42.41508" lon="0.1445">
        <ele>530</ele>
        <time>2017-07-02T09:26:57Z</time>
      </trkpt>
      <trkpt lat="42.41511" lon="0.14451">
        <ele>530</ele>
        <time>2017-07-02T09:26:58Z</time>
      </trkpt>
      <trkpt lat="42.41515" lon="0.14452">
        <ele>530</ele>
        <time>2017-07-02T09:26:59Z</time>
      </trkpt>
      <trkpt lat="42.41519" lon="0.14453">
        <ele>530</ele>
        <time>2017-07-02T09:27:00Z</time>
      </trkpt>
      <trkpt lat="42.41523" lon="0.14453">
        <ele>530</ele>
        <time>2017-07-02T09:27:01Z</time>
      </trkpt>
      <trkpt lat="42.41527" lon="0.14453">
        <ele>530</ele>
        <time>2017-07-02T09:27:02Z</time>
      </trkpt>
      <trkpt lat="42.41531" lon="0.14451">
        <ele>530</ele>
        <time>2017-07-02T09:27:03Z</time>
      </trkpt>
      <trkpt lat="42.41533" lon="0.14447">
        <ele>530</ele>
        <time>2017-07-02T09:27:04Z</time>
      </trkpt>
      <trkpt lat="42.41532" lon="0.14436">
        <ele>530</ele>
        <time>2017-07-02T09:27:05Z</time>
      </trkpt>
      <trkpt lat="42.41531" lon="0.1443">
        <ele>530</ele>
        <time>2017-07-02T09:27:06Z</time>
      </trkpt>
      <trkpt lat="42.4153" lon="0.14424">
        <ele>530</ele>
        <time>2017-07-02T09:27:07Z</time>
      </trkpt>
      <trkpt lat="42.41528" lon="0.14419">
        <ele>529.9</ele>
        <time>2017-07-02T09:27:08Z</time>
      </trkpt>
      <trkpt lat="42.41526" lon="0.14414">
        <ele>528.4</ele>
        <time>2017-07-02T09:27:09Z</time>
      </trkpt>
      <trkpt lat="42.41524" lon="0.14406">
        <ele>526.6</ele>
        <time>2017-07-02T09:27:10Z</time>
      </trkpt>
      <trkpt lat="42.41522" lon="0.14402">
        <ele>525</ele>
        <time>2017-07-02T09:27:11Z</time>
      </trkpt>
      <trkpt lat="42.41522" lon="0.14396">
        <ele>525</ele>
        <time>2017-07-02T09:27:12Z</time>
      </trkpt>
      <trkpt lat="42.4152" lon="0.14391">
        <ele>525</ele>
        <time>2017-07-02T09:27:13Z</time>
      </trkpt>
      <trkpt lat="42.41519" lon="0.14385">
        <ele>525</ele>
        <time>2017-07-02T09:27:14Z</time>
      </trkpt>
      <trkpt lat="42.41518" lon="0.1438">
        <ele>525</ele>
        <time>2017-07-02T09:27:15Z</time>
      </trkpt>
      <trkpt lat="42.41517" lon="0.14374">
        <ele>525</ele>
        <time>2017-07-02T09:27:16Z</time>
      </trkpt>
      <trkpt lat="42.41515" lon="0.14368">
        <ele>525</ele>
        <time>2017-07-02T09:27:17Z</time>
      </trkpt>
      <trkpt lat="42.41514" lon="0.14361">
        <ele>525</ele>
        <time>2017-07-02T09:27:18Z</time>
      </trkpt>
      <trkpt lat="42.41513" lon="0.14354">
        <ele>525.2</ele>
        <time>2017-07-02T09:27:19Z</time>
      </trkpt>
      <trkpt lat="42.41511" lon="0.14345">
        <ele>526</ele>
        <time>2017-07-02T09:27:20Z</time>
      </trkpt>
      <trkpt lat="42.4151" lon="0.14338">
        <ele>526.5</ele>
        <time>2017-07-02T09:27:21Z</time>
      </trkpt>
      <trkpt lat="42.41508" lon="0.14331">
        <ele>527.2</ele>
        <time>2017-07-02T09:27:22Z</time>
      </trkpt>
      <trkpt lat="42.41507" lon="0.14325">
        <ele>527.9</ele>
        <time>2017-07-02T09:27:23Z</time>
      </trkpt>
      <trkpt lat="42.41506" lon="0.14318">
        <ele>528.4</ele>
        <time>2017-07-02T09:27:24Z</time>
      </trkpt>
      <trkpt lat="42.41504" lon="0.14311">
        <ele>528.9</ele>
        <time>2017-07-02T09:27:25Z</time>
      </trkpt>
      <trkpt lat="42.41503" lon="0.14303">
        <ele>529.4</ele>
        <time>2017-07-02T09:27:26Z</time>
      </trkpt>
      <trkpt lat="42.41502" lon="0.14297">
        <ele>529.9</ele>
        <time>2017-07-02T09:27:27Z</time>
      </trkpt>
      <trkpt lat="42.41501" lon="0.1429">
        <ele>530.3</ele>
        <time>2017-07-02T09:27:28Z</time>
      </trkpt>
      <trkpt lat="42.41501" lon="0.14283">
        <ele>530.8</ele>
        <time>2017-07-02T09:27:29Z</time>
      </trkpt>
      <trkpt lat="42.415" lon="0.14276">
        <ele>531.2</ele>
        <time>2017-07-02T09:27:30Z</time>
      </trkpt>
      <trkpt lat="42.41499" lon="0.1427">
        <ele>531.4</ele>
        <time>2017-07-02T09:27:31Z</time>
      </trkpt>
      <trkpt lat="42.41498" lon="0.14262">
        <ele>531.7</ele>
        <time>2017-07-02T09:27:32Z</time>
      </trkpt>
      <trkpt lat="42.41497" lon="0.14255">
        <ele>532</ele>
        <time>2017-07-02T09:27:33Z</time>
      </trkpt>
      <trkpt lat="42.41497" lon="0.14249">
        <ele>532.3</ele>
        <time>2017-07-02T09:27:34Z</time>
      </trkpt>
      <trkpt lat="42.41496" lon="0.14243">
        <ele>532.5</ele>
        <time>2017-07-02T09:27:35Z</time>
      </trkpt>
      <trkpt lat="42.41496" lon="0.14236">
        <ele>532.8</ele>
        <time>2017-07-02T09:27:36Z</time>
      </trkpt>
      <trkpt lat="42.41495" lon="0.1423">
        <ele>533</ele>
        <time>2017-07-02T09:27:37Z</time>
      </trkpt>
      <trkpt lat="42.41494" lon="0.14224">
        <ele>533.3</ele>
        <time>2017-07-02T09:27:38Z</time>
      </trkpt>
      <trkpt lat="42.41494" lon="0.14217">
        <ele>533.6</ele>
        <time>2017-07-02T09:27:39Z</time>
      </trkpt>
      <trkpt lat="42.41493" lon="0.1421">
        <ele>533.9</ele>
        <time>2017-07-02T09:27:40Z</time>
      </trkpt>
      <trkpt lat="42.41492" lon="0.14205">
        <ele>534.1</ele>
        <time>2017-07-02T09:27:41Z</time>
      </trkpt>
      <trkpt lat="42.41491" lon="0.14199">
        <ele>534.4</ele>
        <time>2017-07-02T09:27:42Z</time>
      </trkpt>
      <trkpt lat="42.4149" lon="0.14194">
        <ele>534.6</ele>
        <time>2017-07-02T09:27:43Z</time>
      </trkpt>
      <trkpt lat="42.41489" lon="0.14187">
        <ele>535</ele>
        <time>2017-07-02T09:27:44Z</time>
      </trkpt>
      <trkpt lat="42.41488" lon="0.14181">
        <ele>535.2</ele>
        <time>2017-07-02T09:27:45Z</time>
      </trkpt>
      <trkpt lat="42.41487" lon="0.14175">
        <ele>535.5</ele>
        <time>2017-07-02T09:27:46Z</time>
      </trkpt>
      <trkpt lat="42.41485" lon="0.14168">
        <ele>535.9</ele>
        <time>2017-07-02T09:27:47Z</time>
      </trkpt>
      <trkpt lat="42.41484" lon="0.1416">
        <ele>536</ele>
        <time>2017-07-02T09:27:48Z</time>
      </trkpt>
      <trkpt lat="42.41483" lon="0.14154">
        <ele>535.9</ele>
        <time>2017-07-02T09:27:49Z</time>
      </trkpt>
      <trkpt lat="42.41482" lon="0.14149">
        <ele>535.8</ele>
        <time>2017-07-02T09:27:50Z</time>
      </trkpt>
      <trkpt lat="42.41482" lon="0.14142">
        <ele>535.7</ele>
        <time>2017-07-02T09:27:51Z</time>
      </trkpt>
      <trkpt lat="42.4148" lon="0.14137">
        <ele>535.6</ele>
        <time>2017-07-02T09:27:52Z</time>
      </trkpt>
      <trkpt lat="42.41479" lon="0.1413">
        <ele>535.4</ele>
        <time>2017-07-02T09:27:53Z</time>
      </trkpt>
      <trkpt lat="42.41478" lon="0.14124">
        <ele>535.3</ele>
        <time>2017-07-02T09:27:54Z</time>
      </trkpt>
      <trkpt lat="42.41477" lon="0.14118">
        <ele>535.1</ele>
        <time>2017-07-02T09:27:55Z</time>
      </trkpt>
      <trkpt lat="42.41477" lon="0.14113">
        <ele>535</ele>
        <time>2017-07-02T09:27:56Z</time>
      </trkpt>
      <trkpt lat="42.41477" lon="0.14108">
        <ele>534.9</ele>
        <time>2017-07-02T09:27:57Z</time>
      </trkpt>
      <trkpt lat="42.41476" lon="0.141">
        <ele>534.7</ele>
        <time>2017-07-02T09:27:58Z</time>
      </trkpt>
      <trkpt lat="42.41475" lon="0.14096">
        <ele>534.6</ele>
        <time>2017-07-02T09:27:59Z</time>
      </trkpt>
      <trkpt lat="42.41476" lon="0.14089">
        <ele>534.5</ele>
        <time>2017-07-02T09:28:00Z</time>
      </trkpt>
      <trkpt lat="42.41476" lon="0.14083">
        <ele>534.4</ele>
        <time>2017-07-02T09:28:01Z</time>
      </trkpt>
      <trkpt lat="42.41475" lon="0.14077">
        <ele>534.3</ele>
        <time>2017-07-02T09:28:02Z</time>
      </trkpt>
      <trkpt lat="42.41474" lon="0.14072">
        <ele>534.2</ele>
        <time>2017-07-02T09:28:03Z</time>
      </trkpt>
      <trkpt lat="42.41473" lon="0.14067">
        <ele>534.1</ele>
        <time>2017-07-02T09:28:04Z</time>
      </trkpt>
      <trkpt lat="42.41473" lon="0.1406">
        <ele>534</ele>
        <time>2017-07-02T09:28:06Z</time>
      </trkpt>
      <trkpt lat="42.4147" lon="0.14055">
        <ele>534</ele>
        <time>2017-07-02T09:28:08Z</time>
      </trkpt>
      <trkpt lat="42.41468" lon="0.14049">
        <ele>534</ele>
        <time>2017-07-02T09:28:10Z</time>
      </trkpt>
      <trkpt lat="42.41466" lon="0.14044">
        <ele>534</ele>
        <time>2017-07-02T09:28:12Z</time>
      </trkpt>
      <trkpt lat="42.41463" lon="0.14037">
        <ele>534</ele>
        <time>2017-07-02T09:28:14Z</time>
      </trkpt>
      <trkpt lat="42.4146" lon="0.14033">
        <ele>534</ele>
        <time>2017-07-02T09:28:15Z</time>
      </trkpt>
      <trkpt lat="42.41457" lon="0.14031">
        <ele>534</ele>
        <time>2017-07-02T09:28:16Z</time>
      </trkpt>
      <trkpt lat="42.41453" lon="0.1403">
        <ele>534</ele>
        <time>2017-07-02T09:28:17Z</time>
      </trkpt>
      <trkpt lat="42.41448" lon="0.14031">
        <ele>534</ele>
        <time>2017-07-02T09:28:18Z</time>
      </trkpt>
      <trkpt lat="42.41443" lon="0.14031">
        <ele>534</ele>
        <time>2017-07-02T09:28:19Z</time>
      </trkpt>
      <trkpt lat="42.41438" lon="0.14032">
        <ele>534</ele>
        <time>2017-07-02T09:28:20Z</time>
      </trkpt>
      <trkpt lat="42.41434" lon="0.14032">
        <ele>534</ele>
        <time>2017-07-02T09:28:21Z</time>
      </trkpt>
      <trkpt lat="42.41429" lon="0.14032">
        <ele>534</ele>
        <time>2017-07-02T09:28:22Z</time>
      </trkpt>
      <trkpt lat="42.41425" lon="0.14032">
        <ele>534</ele>
        <time>2017-07-02T09:28:23Z</time>
      </trkpt>
      <trkpt lat="42.4142" lon="0.14033">
        <ele>533.8</ele>
        <time>2017-07-02T09:28:24Z</time>
      </trkpt>
      <trkpt lat="42.41416" lon="0.14033">
        <ele>533.5</ele>
        <time>2017-07-02T09:28:25Z</time>
      </trkpt>
      <trkpt lat="42.41411" lon="0.14034">
        <ele>533.2</ele>
        <time>2017-07-02T09:28:26Z</time>
      </trkpt>
      <trkpt lat="42.41407" lon="0.14035">
        <ele>532.8</ele>
        <time>2017-07-02T09:28:27Z</time>
      </trkpt>
      <trkpt lat="42.41403" lon="0.14035">
        <ele>532.6</ele>
        <time>2017-07-02T09:28:28Z</time>
      </trkpt>
      <trkpt lat="42.41398" lon="0.14036">
        <ele>532.3</ele>
        <time>2017-07-02T09:28:29Z</time>
      </trkpt>
      <trkpt lat="42.41392" lon="0.14037">
        <ele>531.4</ele>
        <time>2017-07-02T09:28:30Z</time>
      </trkpt>
      <trkpt lat="42.41385" lon="0.14035">
        <ele>530.5</ele>
        <time>2017-07-02T09:28:31Z</time>
      </trkpt>
      <trkpt lat="42.41383" lon="0.14037">
        <ele>530.1</ele>
        <time>2017-07-02T09:28:32Z</time>
      </trkpt>
      <trkpt lat="42.41378" lon="0.14036">
        <ele>529.4</ele>
        <time>2017-07-02T09:28:33Z</time>
      </trkpt>
      <trkpt lat="42.41373" lon="0.14038">
        <ele>528.8</ele>
        <time>2017-07-02T09:28:34Z</time>
      </trkpt>
      <trkpt lat="42.4137" lon="0.14037">
        <ele>528.2</ele>
        <time>2017-07-02T09:28:35Z</time>
      </trkpt>
      <trkpt lat="42.41366" lon="0.14038">
        <ele>528</ele>
        <time>2017-07-02T09:28:36Z</time>
      </trkpt>
      <trkpt lat="42.41362" lon="0.14039">
        <ele>528.1</ele>
        <time>2017-07-02T09:28:37Z</time>
      </trkpt>
      <trkpt lat="42.41357" lon="0.14039">
        <ele>528.2</ele>
        <time>2017-07-02T09:28:38Z</time>
      </trkpt>
      <trkpt lat="42.41353" lon="0.14038">
        <ele>528.4</ele>
        <time>2017-07-02T09:28:39Z</time>
      </trkpt>
      <trkpt lat="42.41348" lon="0.14039">
        <ele>528.6</ele>
        <time>2017-07-02T09:28:40Z</time>
      </trkpt>
      <trkpt lat="42.41343" lon="0.1404">
        <ele>528.8</ele>
        <time>2017-07-02T09:28:41Z</time>
      </trkpt>
      <trkpt lat="42.41337" lon="0.14038">
        <ele>529</ele>
        <time>2017-07-02T09:28:42Z</time>
      </trkpt>
      <trkpt lat="42.41333" lon="0.14036">
        <ele>529.2</ele>
        <time>2017-07-02T09:28:43Z</time>
      </trkpt>
      <trkpt lat="42.41329" lon="0.14036">
        <ele>529.4</ele>
        <time>2017-07-02T09:28:44Z</time>
      </trkpt>
      <trkpt lat="42.41324" lon="0.14037">
        <ele>529.6</ele>
        <time>2017-07-02T09:28:45Z</time>
      </trkpt>
      <trkpt lat="42.41319" lon="0.14038">
        <ele>529.9</ele>
        <time>2017-07-02T09:28:46Z</time>
      </trkpt>
      <trkpt lat="42.41314" lon="0.14039">
        <ele>530.1</ele>
        <time>2017-07-02T09:28:47Z</time>
      </trkpt>
      <trkpt lat="42.4131" lon="0.14041">
        <ele>530.4</ele>
        <time>2017-07-02T09:28:48Z</time>
      </trkpt>
      <trkpt lat="42.41304" lon="0.14041">
        <ele>530.8</ele>
        <time>2017-07-02T09:28:49Z</time>
      </trkpt>
      <trkpt lat="42.413" lon="0.14042">
        <ele>531.1</ele>
        <time>2017-07-02T09:28:50Z</time>
      </trkpt>
      <trkpt lat="42.41295" lon="0.1404">
        <ele>531.5</ele>
        <time>2017-07-02T09:28:51Z</time>
      </trkpt>
      <trkpt lat="42.41288" lon="0.14039">
        <ele>532</ele>
        <time>2017-07-02T09:28:52Z</time>
      </trkpt>
      <trkpt lat="42.41283" lon="0.1404">
        <ele>532.2</ele>
        <time>2017-07-02T09:28:53Z</time>
      </trkpt>
      <trkpt lat="42.41278" lon="0.14041">
        <ele>532.4</ele>
        <time>2017-07-02T09:28:54Z</time>
      </trkpt>
      <trkpt lat="42.41273" lon="0.14041">
        <ele>532.7</ele>
        <time>2017-07-02T09:28:55Z</time>
      </trkpt>
      <trkpt lat="42.41268" lon="0.1404">
        <ele>533</ele>
        <time>2017-07-02T09:28:56Z</time>
      </trkpt>
      <trkpt lat="42.41263" lon="0.14037">
        <ele>533</ele>
        <time>2017-07-02T09:28:57Z</time>
      </trkpt>
      <trkpt lat="42.41261" lon="0.14034">
        <ele>533</ele>
        <time>2017-07-02T09:28:58Z</time>
      </trkpt>
      <trkpt lat="42.41258" lon="0.14032">
        <ele>533</ele>
        <time>2017-07-02T09:28:59Z</time>
      </trkpt>
      <trkpt lat="42.41254" lon="0.14031">
        <ele>533.3</ele>
        <time>2017-07-02T09:29:00Z</time>
      </trkpt>
      <trkpt lat="42.4125" lon="0.1403">
        <ele>533.7</ele>
        <time>2017-07-02T09:29:01Z</time>
      </trkpt>
      <trkpt lat="42.41246" lon="0.14033">
        <ele>534.2</ele>
        <time>2017-07-02T09:29:02Z</time>
      </trkpt>
      <trkpt lat="42.41244" lon="0.14038">
        <ele>537</ele>
        <time>2017-07-02T09:29:03Z</time>
      </trkpt>
      <trkpt lat="42.41241" lon="0.14044">
        <ele>537</ele>
        <time>2017-07-02T09:29:04Z</time>
      </trkpt>
      <trkpt lat="42.41242" lon="0.14048">
        <ele>537</ele>
        <time>2017-07-02T09:29:05Z</time>
      </trkpt>
      <trkpt lat="42.41242" lon="0.14055">
        <ele>537</ele>
        <time>2017-07-02T09:29:06Z</time>
      </trkpt>
      <trkpt lat="42.41242" lon="0.14058">
        <ele>537</ele>
        <time>2017-07-02T09:29:07Z</time>
      </trkpt>
      <trkpt lat="42.41241" lon="0.14063">
        <ele>537</ele>
        <time>2017-07-02T09:29:08Z</time>
      </trkpt>
      <trkpt lat="42.41241" lon="0.14067">
        <ele>537</ele>
        <time>2017-07-02T09:29:09Z</time>
      </trkpt>
      <trkpt lat="42.41237" lon="0.14071">
        <ele>537</ele>
        <time>2017-07-02T09:29:11Z</time>
      </trkpt>
      <trkpt lat="42.41233" lon="0.14071">
        <ele>537.1</ele>
        <time>2017-07-02T09:29:13Z</time>
      </trkpt>
      <trkpt lat="42.41231" lon="0.1407">
        <ele>537.1</ele>
        <time>2017-07-02T09:29:15Z</time>
      </trkpt>
      <trkpt lat="42.41228" lon="0.1407">
        <ele>537.2</ele>
        <time>2017-07-02T09:29:17Z</time>
      </trkpt>
      <trkpt lat="42.41225" lon="0.1407">
        <ele>536.9</ele>
        <time>2017-07-02T09:29:19Z</time>
      </trkpt>
      <trkpt lat="42.41221" lon="0.14071">
        <ele>536.5</ele>
        <time>2017-07-02T09:29:21Z</time>
      </trkpt>
      <trkpt lat="42.41218" lon="0.14068">
        <ele>536.3</ele>
        <time>2017-07-02T09:29:23Z</time>
      </trkpt>
      <trkpt lat="42.41214" lon="0.14066">
        <ele>536.3</ele>
        <time>2017-07-02T09:29:26Z</time>
      </trkpt>
      <trkpt lat="42.4121" lon="0.14064">
        <ele>536.3</ele>
        <time>2017-07-02T09:29:29Z</time>
      </trkpt>
      <trkpt lat="42.41207" lon="0.14064">
        <ele>536.3</ele>
        <time>2017-07-02T09:29:31Z</time>
      </trkpt>
      <trkpt lat="42.41202" lon="0.14064">
        <ele>536.2</ele>
        <time>2017-07-02T09:29:33Z</time>
      </trkpt>
      <trkpt lat="42.41198" lon="0.14064">
        <ele>536.2</ele>
        <time>2017-07-02T09:29:35Z</time>
      </trkpt>
      <trkpt lat="42.41192" lon="0.14063">
        <ele>536.3</ele>
        <time>2017-07-02T09:29:37Z</time>
      </trkpt>
      <trkpt lat="42.41188" lon="0.14063">
        <ele>536.9</ele>
        <time>2017-07-02T09:29:39Z</time>
      </trkpt>
      <trkpt lat="42.41184" lon="0.14063">
        <ele>537.4</ele>
        <time>2017-07-02T09:29:41Z</time>
      </trkpt>
      <trkpt lat="42.4118" lon="0.14062">
        <ele>538.1</ele>
        <time>2017-07-02T09:29:43Z</time>
      </trkpt>
      <trkpt lat="42.41176" lon="0.14061">
        <ele>538.8</ele>
        <time>2017-07-02T09:29:45Z</time>
      </trkpt>
      <trkpt lat="42.41173" lon="0.1406">
        <ele>539.2</ele>
        <time>2017-07-02T09:29:47Z</time>
      </trkpt>
      <trkpt lat="42.4117" lon="0.1406">
        <ele>539.7</ele>
        <time>2017-07-02T09:29:49Z</time>
      </trkpt>
      <trkpt lat="42.41167" lon="0.14059">
        <ele>540</ele>
        <time>2017-07-02T09:29:51Z</time>
      </trkpt>
      <trkpt lat="42.41163" lon="0.14058">
        <ele>540</ele>
        <time>2017-07-02T09:29:53Z</time>
      </trkpt>
      <trkpt lat="42.4116" lon="0.14057">
        <ele>539.9</ele>
        <time>2017-07-02T09:29:55Z</time>
      </trkpt>
      <trkpt lat="42.41156" lon="0.14057">
        <ele>540.3</ele>
        <time>2017-07-02T09:29:57Z</time>
      </trkpt>
      <trkpt lat="42.41153" lon="0.14058">
        <ele>540.8</ele>
        <time>2017-07-02T09:29:59Z</time>
      </trkpt>
      <trkpt lat="42.4115" lon="0.14058">
        <ele>541.2</ele>
        <time>2017-07-02T09:30:01Z</time>
      </trkpt>
      <trkpt lat="42.41147" lon="0.14058">
        <ele>541.6</ele>
        <time>2017-07-02T09:30:03Z</time>
      </trkpt>
      <trkpt lat="42.41143" lon="0.14058">
        <ele>542</ele>
        <time>2017-07-02T09:30:05Z</time>
      </trkpt>
      <trkpt lat="42.4114" lon="0.14059">
        <ele>542.3</ele>
        <time>2017-07-02T09:30:07Z</time>
      </trkpt>
      <trkpt lat="42.41137" lon="0.14061">
        <ele>542.6</ele>
        <time>2017-07-02T09:30:09Z</time>
      </trkpt>
      <trkpt lat="42.41134" lon="0.14063">
        <ele>542.9</ele>
        <time>2017-07-02T09:30:11Z</time>
      </trkpt>
      <trkpt lat="42.41131" lon="0.14064">
        <ele>543.7</ele>
        <time>2017-07-02T09:30:13Z</time>
      </trkpt>
      <trkpt lat="42.41128" lon="0.14065">
        <ele>544.5</ele>
        <time>2017-07-02T09:30:15Z</time>
      </trkpt>
      <trkpt lat="42.41125" lon="0.14063">
        <ele>545</ele>
        <time>2017-07-02T09:30:17Z</time>
      </trkpt>
      <trkpt lat="42.41121" lon="0.14061">
        <ele>544.7</ele>
        <time>2017-07-02T09:30:19Z</time>
      </trkpt>
      <trkpt lat="42.41119" lon="0.14059">
        <ele>544.6</ele>
        <time>2017-07-02T09:30:21Z</time>
      </trkpt>
      <trkpt lat="42.41116" lon="0.14058">
        <ele>544.4</ele>
        <time>2017-07-02T09:30:23Z</time>
      </trkpt>
      <trkpt lat="42.41113" lon="0.14057">
        <ele>544.4</ele>
        <time>2017-07-02T09:30:25Z</time>
      </trkpt>
      <trkpt lat="42.41109" lon="0.14056">
        <ele>544.8</ele>
        <time>2017-07-02T09:30:27Z</time>
      </trkpt>
      <trkpt lat="42.41106" lon="0.14056">
        <ele>545.2</ele>
        <time>2017-07-02T09:30:29Z</time>
      </trkpt>
      <trkpt lat="42.41103" lon="0.14057">
        <ele>545.7</ele>
        <time>2017-07-02T09:30:31Z</time>
      </trkpt>
      <trkpt lat="42.411" lon="0.14057">
        <ele>546.6</ele>
        <time>2017-07-02T09:30:33Z</time>
      </trkpt>
      <trkpt lat="42.41096" lon="0.14057">
        <ele>547.4</ele>
        <time>2017-07-02T09:30:35Z</time>
      </trkpt>
      <trkpt lat="42.41093" lon="0.14057">
        <ele>548.2</ele>
        <time>2017-07-02T09:30:37Z</time>
      </trkpt>
      <trkpt lat="42.4109" lon="0.14058">
        <ele>549.3</ele>
        <time>2017-07-02T09:30:40Z</time>
      </trkpt>
      <trkpt lat="42.41087" lon="0.1406">
        <ele>550</ele>
        <time>2017-07-02T09:30:42Z</time>
      </trkpt>
      <trkpt lat="42.41085" lon="0.14061">
        <ele>550.8</ele>
        <time>2017-07-02T09:30:44Z</time>
      </trkpt>
      <trkpt lat="42.41082" lon="0.1406">
        <ele>551.5</ele>
        <time>2017-07-02T09:30:46Z</time>
      </trkpt>
      <trkpt lat="42.41079" lon="0.1406">
        <ele>552.3</ele>
        <time>2017-07-02T09:30:48Z</time>
      </trkpt>
      <trkpt lat="42.41076" lon="0.14061">
        <ele>553.2</ele>
        <time>2017-07-02T09:30:50Z</time>
      </trkpt>
      <trkpt lat="42.41073" lon="0.14062">
        <ele>554.1</ele>
        <time>2017-07-02T09:30:52Z</time>
      </trkpt>
      <trkpt lat="42.4107" lon="0.14062">
        <ele>555.1</ele>
        <time>2017-07-02T09:30:54Z</time>
      </trkpt>
      <trkpt lat="42.41067" lon="0.14062">
        <ele>556.3</ele>
        <time>2017-07-02T09:30:56Z</time>
      </trkpt>
      <trkpt lat="42.41064" lon="0.14062">
        <ele>557.5</ele>
        <time>2017-07-02T09:30:58Z</time>
      </trkpt>
      <trkpt lat="42.41061" lon="0.14061">
        <ele>558.5</ele>
        <time>2017-07-02T09:31:00Z</time>
      </trkpt>
      <trkpt lat="42.41057" lon="0.14062">
        <ele>559.4</ele>
        <time>2017-07-02T09:31:02Z</time>
      </trkpt>
      <trkpt lat="42.41054" lon="0.14063">
        <ele>560.3</ele>
        <time>2017-07-02T09:31:04Z</time>
      </trkpt>
      <trkpt lat="42.41051" lon="0.14066">
        <ele>561.5</ele>
        <time>2017-07-02T09:31:06Z</time>
      </trkpt>
      <trkpt lat="42.41048" lon="0.14069">
        <ele>562.7</ele>
        <time>2017-07-02T09:31:08Z</time>
      </trkpt>
      <trkpt lat="42.41044" lon="0.1407">
        <ele>563.8</ele>
        <time>2017-07-02T09:31:10Z</time>
      </trkpt>
      <trkpt lat="42.4104" lon="0.14071">
        <ele>564.8</ele>
        <time>2017-07-02T09:31:12Z</time>
      </trkpt>
      <trkpt lat="42.41037" lon="0.14074">
        <ele>565.7</ele>
        <time>2017-07-02T09:31:14Z</time>
      </trkpt>
      <trkpt lat="42.41034" lon="0.14076">
        <ele>565.8</ele>
        <time>2017-07-02T09:31:16Z</time>
      </trkpt>
      <trkpt lat="42.4103" lon="0.14078">
        <ele>565.9</ele>
        <time>2017-07-02T09:31:18Z</time>
      </trkpt>
      <trkpt lat="42.41026" lon="0.14078">
        <ele>565.7</ele>
        <time>2017-07-02T09:31:20Z</time>
      </trkpt>
      <trkpt lat="42.41022" lon="0.14078">
        <ele>565.3</ele>
        <time>2017-07-02T09:31:22Z</time>
      </trkpt>
      <trkpt lat="42.41018" lon="0.14077">
        <ele>565.2</ele>
        <time>2017-07-02T09:31:24Z</time>
      </trkpt>
      <trkpt lat="42.41015" lon="0.14075">
        <ele>565.5</ele>
        <time>2017-07-02T09:31:26Z</time>
      </trkpt>
      <trkpt lat="42.41011" lon="0.14072">
        <ele>565.6</ele>
        <time>2017-07-02T09:31:28Z</time>
      </trkpt>
      <trkpt lat="42.41008" lon="0.1407">
        <ele>565.3</ele>
        <time>2017-07-02T09:31:30Z</time>
      </trkpt>
      <trkpt lat="42.41004" lon="0.14069">
        <ele>565.1</ele>
        <time>2017-07-02T09:31:32Z</time>
      </trkpt>
      <trkpt lat="42.41" lon="0.14067">
        <ele>564.9</ele>
        <time>2017-07-02T09:31:34Z</time>
      </trkpt>
      <trkpt lat="42.40997" lon="0.14064">
        <ele>564.9</ele>
        <time>2017-07-02T09:31:36Z</time>
      </trkpt>
      <trkpt lat="42.40993" lon="0.14061">
        <ele>565.3</ele>
        <time>2017-07-02T09:31:38Z</time>
      </trkpt>
      <trkpt lat="42.40989" lon="0.14059">
        <ele>565.7</ele>
        <time>2017-07-02T09:31:40Z</time>
      </trkpt>
      <trkpt lat="42.40984" lon="0.14057">
        <ele>566.1</ele>
        <time>2017-07-02T09:31:42Z</time>
      </trkpt>
      <trkpt lat="42.4098" lon="0.14054">
        <ele>566.5</ele>
        <time>2017-07-02T09:31:44Z</time>
      </trkpt>
      <trkpt lat="42.40976" lon="0.14052">
        <ele>566.8</ele>
        <time>2017-07-02T09:31:46Z</time>
      </trkpt>
      <trkpt lat="42.40971" lon="0.1405">
        <ele>567.4</ele>
        <time>2017-07-02T09:31:48Z</time>
      </trkpt>
      <trkpt lat="42.40967" lon="0.14048">
        <ele>568</ele>
        <time>2017-07-02T09:31:50Z</time>
      </trkpt>
      <trkpt lat="42.40963" lon="0.14046">
        <ele>568.5</ele>
        <time>2017-07-02T09:31:52Z</time>
      </trkpt>
      <trkpt lat="42.40959" lon="0.14046">
        <ele>568.8</ele>
        <time>2017-07-02T09:31:54Z</time>
      </trkpt>
      <trkpt lat="42.40954" lon="0.14046">
        <ele>568.9</ele>
        <time>2017-07-02T09:31:56Z</time>
      </trkpt>
      <trkpt lat="42.4095" lon="0.14046">
        <ele>569.3</ele>
        <time>2017-07-02T09:31:58Z</time>
      </trkpt>
      <trkpt lat="42.40946" lon="0.14046">
        <ele>569.7</ele>
        <time>2017-07-02T09:32:00Z</time>
      </trkpt>
      <trkpt lat="42.40942" lon="0.14045">
        <ele>569.6</ele>
        <time>2017-07-02T09:32:02Z</time>
      </trkpt>
      <trkpt lat="42.40938" lon="0.14045">
        <ele>569.5</ele>
        <time>2017-07-02T09:32:04Z</time>
      </trkpt>
      <trkpt lat="42.40935" lon="0.14043">
        <ele>569.7</ele>
        <time>2017-07-02T09:32:06Z</time>
      </trkpt>
      <trkpt lat="42.4093" lon="0.14041">
        <ele>570</ele>
        <time>2017-07-02T09:32:08Z</time>
      </trkpt>
      <trkpt lat="42.40925" lon="0.1404">
        <ele>570.1</ele>
        <time>2017-07-02T09:32:10Z</time>
      </trkpt>
      <trkpt lat="42.40923" lon="0.14039">
        <ele>570.1</ele>
        <time>2017-07-02T09:32:11Z</time>
      </trkpt>
      <trkpt lat="42.4092" lon="0.14038">
        <ele>570.1</ele>
        <time>2017-07-02T09:32:12Z</time>
      </trkpt>
      <trkpt lat="42.40917" lon="0.14037">
        <ele>570.1</ele>
        <time>2017-07-02T09:32:13Z</time>
      </trkpt>
      <trkpt lat="42.40912" lon="0.14036">
        <ele>570.4</ele>
        <time>2017-07-02T09:32:15Z</time>
      </trkpt>
      <trkpt lat="42.40907" lon="0.14035">
        <ele>570.7</ele>
        <time>2017-07-02T09:32:17Z</time>
      </trkpt>
      <trkpt lat="42.40902" lon="0.14034">
        <ele>571</ele>
        <time>2017-07-02T09:32:19Z</time>
      </trkpt>
      <trkpt lat="42.40898" lon="0.14032">
        <ele>571.2</ele>
        <time>2017-07-02T09:32:21Z</time>
      </trkpt>
      <trkpt lat="42.40893" lon="0.14028">
        <ele>571.7</ele>
        <time>2017-07-02T09:32:23Z</time>
      </trkpt>
      <trkpt lat="42.40891" lon="0.14026">
        <ele>571.9</ele>
        <time>2017-07-02T09:32:24Z</time>
      </trkpt>
      <trkpt lat="42.40888" lon="0.14024">
        <ele>572.1</ele>
        <time>2017-07-02T09:32:25Z</time>
      </trkpt>
      <trkpt lat="42.40886" lon="0.14022">
        <ele>572.3</ele>
        <time>2017-07-02T09:32:26Z</time>
      </trkpt>
      <trkpt lat="42.40883" lon="0.1402">
        <ele>572.5</ele>
        <time>2017-07-02T09:32:27Z</time>
      </trkpt>
      <trkpt lat="42.40881" lon="0.14019">
        <ele>572.5</ele>
        <time>2017-07-02T09:32:28Z</time>
      </trkpt>
      <trkpt lat="42.40878" lon="0.14017">
        <ele>572.6</ele>
        <time>2017-07-02T09:32:29Z</time>
      </trkpt>
      <trkpt lat="42.40875" lon="0.14016">
        <ele>572.5</ele>
        <time>2017-07-02T09:32:30Z</time>
      </trkpt>
      <trkpt lat="42.40873" lon="0.14015">
        <ele>572.4</ele>
        <time>2017-07-02T09:32:31Z</time>
      </trkpt>
      <trkpt lat="42.40867" lon="0.14014">
        <ele>572.2</ele>
        <time>2017-07-02T09:32:33Z</time>
      </trkpt>
      <trkpt lat="42.40862" lon="0.14013">
        <ele>572.1</ele>
        <time>2017-07-02T09:32:35Z</time>
      </trkpt>
      <trkpt lat="42.40858" lon="0.14013">
        <ele>572.7</ele>
        <time>2017-07-02T09:32:37Z</time>
      </trkpt>
      <trkpt lat="42.40853" lon="0.14014">
        <ele>574.2</ele>
        <time>2017-07-02T09:32:39Z</time>
      </trkpt>
      <trkpt lat="42.40849" lon="0.14018">
        <ele>575.5</ele>
        <time>2017-07-02T09:32:41Z</time>
      </trkpt>
      <trkpt lat="42.40847" lon="0.1402">
        <ele>576.2</ele>
        <time>2017-07-02T09:32:42Z</time>
      </trkpt>
      <trkpt lat="42.40844" lon="0.14023">
        <ele>577.2</ele>
        <time>2017-07-02T09:32:43Z</time>
      </trkpt>
      <trkpt lat="42.40843" lon="0.14026">
        <ele>578.2</ele>
        <time>2017-07-02T09:32:44Z</time>
      </trkpt>
      <trkpt lat="42.40841" lon="0.14029">
        <ele>579.3</ele>
        <time>2017-07-02T09:32:45Z</time>
      </trkpt>
      <trkpt lat="42.4084" lon="0.14033">
        <ele>579.9</ele>
        <time>2017-07-02T09:32:46Z</time>
      </trkpt>
      <trkpt lat="42.40838" lon="0.14036">
        <ele>580.6</ele>
        <time>2017-07-02T09:32:47Z</time>
      </trkpt>
      <trkpt lat="42.40836" lon="0.14039">
        <ele>581.2</ele>
        <time>2017-07-02T09:32:48Z</time>
      </trkpt>
      <trkpt lat="42.40833" lon="0.14041">
        <ele>581.9</ele>
        <time>2017-07-02T09:32:49Z</time>
      </trkpt>
      <trkpt lat="42.4083" lon="0.14042">
        <ele>582.5</ele>
        <time>2017-07-02T09:32:50Z</time>
      </trkpt>
      <trkpt lat="42.40827" lon="0.14044">
        <ele>583.4</ele>
        <time>2017-07-02T09:32:51Z</time>
      </trkpt>
      <trkpt lat="42.40824" lon="0.14045">
        <ele>584.3</ele>
        <time>2017-07-02T09:32:52Z</time>
      </trkpt>
      <trkpt lat="42.40821" lon="0.14046">
        <ele>585.1</ele>
        <time>2017-07-02T09:32:53Z</time>
      </trkpt>
      <trkpt lat="42.40817" lon="0.14047">
        <ele>585.9</ele>
        <time>2017-07-02T09:32:54Z</time>
      </trkpt>
      <trkpt lat="42.40814" lon="0.14049">
        <ele>586.7</ele>
        <time>2017-07-02T09:32:55Z</time>
      </trkpt>
      <trkpt lat="42.40811" lon="0.14051">
        <ele>587</ele>
        <time>2017-07-02T09:32:56Z</time>
      </trkpt>
      <trkpt lat="42.40809" lon="0.14054">
        <ele>587.3</ele>
        <time>2017-07-02T09:32:57Z</time>
      </trkpt>
      <trkpt lat="42.40806" lon="0.14055">
        <ele>587.7</ele>
        <time>2017-07-02T09:32:58Z</time>
      </trkpt>
      <trkpt lat="42.40804" lon="0.14057">
        <ele>588.3</ele>
        <time>2017-07-02T09:32:59Z</time>
      </trkpt>
      <trkpt lat="42.40801" lon="0.14059">
        <ele>588.8</ele>
        <time>2017-07-02T09:33:00Z</time>
      </trkpt>
      <trkpt lat="42.40797" lon="0.14062">
        <ele>589.7</ele>
        <time>2017-07-02T09:33:02Z</time>
      </trkpt>
      <trkpt lat="42.40792" lon="0.14065">
        <ele>590.8</ele>
        <time>2017-07-02T09:33:04Z</time>
      </trkpt>
      <trkpt lat="42.40787" lon="0.14067">
        <ele>591.7</ele>
        <time>2017-07-02T09:33:06Z</time>
      </trkpt>
      <trkpt lat="42.40783" lon="0.14068">
        <ele>592.5</ele>
        <time>2017-07-02T09:33:08Z</time>
      </trkpt>
      <trkpt lat="42.4078" lon="0.14068">
        <ele>592.9</ele>
        <time>2017-07-02T09:33:09Z</time>
      </trkpt>
      <trkpt lat="42.40777" lon="0.1407">
        <ele>593.2</ele>
        <time>2017-07-02T09:33:10Z</time>
      </trkpt>
      <trkpt lat="42.40775" lon="0.14071">
        <ele>593.6</ele>
        <time>2017-07-02T09:33:11Z</time>
      </trkpt>
      <trkpt lat="42.40772" lon="0.14073">
        <ele>593.7</ele>
        <time>2017-07-02T09:33:12Z</time>
      </trkpt>
      <trkpt lat="42.40769" lon="0.14075">
        <ele>593.8</ele>
        <time>2017-07-02T09:33:13Z</time>
      </trkpt>
      <trkpt lat="42.40766" lon="0.14076">
        <ele>593.9</ele>
        <time>2017-07-02T09:33:14Z</time>
      </trkpt>
      <trkpt lat="42.40761" lon="0.14078">
        <ele>594.2</ele>
        <time>2017-07-02T09:33:16Z</time>
      </trkpt>
      <trkpt lat="42.40756" lon="0.14079">
        <ele>594.3</ele>
        <time>2017-07-02T09:33:18Z</time>
      </trkpt>
      <trkpt lat="42.40751" lon="0.1408">
        <ele>594.2</ele>
        <time>2017-07-02T09:33:20Z</time>
      </trkpt>
      <trkpt lat="42.40746" lon="0.14081">
        <ele>594.3</ele>
        <time>2017-07-02T09:33:22Z</time>
      </trkpt>
      <trkpt lat="42.40742" lon="0.14082">
        <ele>594.4</ele>
        <time>2017-07-02T09:33:24Z</time>
      </trkpt>
      <trkpt lat="42.40737" lon="0.14083">
        <ele>594.3</ele>
        <time>2017-07-02T09:33:26Z</time>
      </trkpt>
      <trkpt lat="42.40732" lon="0.14083">
        <ele>594.5</ele>
        <time>2017-07-02T09:33:28Z</time>
      </trkpt>
      <trkpt lat="42.40729" lon="0.14083">
        <ele>594.7</ele>
        <time>2017-07-02T09:33:29Z</time>
      </trkpt>
      <trkpt lat="42.40726" lon="0.14083">
        <ele>594.9</ele>
        <time>2017-07-02T09:33:30Z</time>
      </trkpt>
      <trkpt lat="42.40723" lon="0.14084">
        <ele>595.1</ele>
        <time>2017-07-02T09:33:31Z</time>
      </trkpt>
      <trkpt lat="42.40718" lon="0.14086">
        <ele>595.6</ele>
        <time>2017-07-02T09:33:33Z</time>
      </trkpt>
      <trkpt lat="42.40713" lon="0.14089">
        <ele>596.2</ele>
        <time>2017-07-02T09:33:35Z</time>
      </trkpt>
      <trkpt lat="42.40711" lon="0.14091">
        <ele>596.5</ele>
        <time>2017-07-02T09:33:36Z</time>
      </trkpt>
      <trkpt lat="42.40706" lon="0.14094">
        <ele>597.4</ele>
        <time>2017-07-02T09:33:38Z</time>
      </trkpt>
      <trkpt lat="42.40701" lon="0.14098">
        <ele>598.5</ele>
        <time>2017-07-02T09:33:40Z</time>
      </trkpt>
      <trkpt lat="42.40697" lon="0.14101">
        <ele>599.1</ele>
        <time>2017-07-02T09:33:42Z</time>
      </trkpt>
      <trkpt lat="42.40692" lon="0.14104">
        <ele>599.6</ele>
        <time>2017-07-02T09:33:44Z</time>
      </trkpt>
      <trkpt lat="42.40688" lon="0.14107">
        <ele>600.1</ele>
        <time>2017-07-02T09:33:46Z</time>
      </trkpt>
      <trkpt lat="42.40684" lon="0.14109">
        <ele>600.6</ele>
        <time>2017-07-02T09:33:48Z</time>
      </trkpt>
      <trkpt lat="42.4068" lon="0.14111">
        <ele>601.1</ele>
        <time>2017-07-02T09:33:50Z</time>
      </trkpt>
      <trkpt lat="42.40675" lon="0.14113">
        <ele>601.7</ele>
        <time>2017-07-02T09:33:52Z</time>
      </trkpt>
      <trkpt lat="42.4067" lon="0.14115">
        <ele>601.1</ele>
        <time>2017-07-02T09:33:54Z</time>
      </trkpt>
      <trkpt lat="42.40665" lon="0.14117">
        <ele>600.2</ele>
        <time>2017-07-02T09:33:56Z</time>
      </trkpt>
      <trkpt lat="42.40662" lon="0.14118">
        <ele>600.3</ele>
        <time>2017-07-02T09:33:57Z</time>
      </trkpt>
      <trkpt lat="42.40659" lon="0.14118">
        <ele>600.6</ele>
        <time>2017-07-02T09:33:58Z</time>
      </trkpt>
      <trkpt lat="42.40656" lon="0.14119">
        <ele>600.9</ele>
        <time>2017-07-02T09:33:59Z</time>
      </trkpt>
      <trkpt lat="42.40651" lon="0.14118">
        <ele>601.4</ele>
        <time>2017-07-02T09:34:01Z</time>
      </trkpt>
      <trkpt lat="42.40646" lon="0.14117">
        <ele>601.6</ele>
        <time>2017-07-02T09:34:03Z</time>
      </trkpt>
      <trkpt lat="42.40641" lon="0.14116">
        <ele>601.6</ele>
        <time>2017-07-02T09:34:05Z</time>
      </trkpt>
      <trkpt lat="42.40637" lon="0.14115">
        <ele>601.4</ele>
        <time>2017-07-02T09:34:07Z</time>
      </trkpt>
      <trkpt lat="42.40632" lon="0.14115">
        <ele>601.4</ele>
        <time>2017-07-02T09:34:09Z</time>
      </trkpt>
      <trkpt lat="42.40628" lon="0.14114">
        <ele>601.4</ele>
        <time>2017-07-02T09:34:11Z</time>
      </trkpt>
      <trkpt lat="42.40623" lon="0.14112">
        <ele>601.4</ele>
        <time>2017-07-02T09:34:13Z</time>
      </trkpt>
      <trkpt lat="42.40618" lon="0.1411">
        <ele>601.4</ele>
        <time>2017-07-02T09:34:15Z</time>
      </trkpt>
      <trkpt lat="42.40613" lon="0.14109">
        <ele>601.4</ele>
        <time>2017-07-02T09:34:17Z</time>
      </trkpt>
      <trkpt lat="42.40608" lon="0.14107">
        <ele>601.4</ele>
        <time>2017-07-02T09:34:19Z</time>
      </trkpt>
      <trkpt lat="42.40603" lon="0.14105">
        <ele>601.5</ele>
        <time>2017-07-02T09:34:21Z</time>
      </trkpt>
      <trkpt lat="42.40598" lon="0.14104">
        <ele>601.8</ele>
        <time>2017-07-02T09:34:23Z</time>
      </trkpt>
      <trkpt lat="42.40593" lon="0.14102">
        <ele>602</ele>
        <time>2017-07-02T09:34:25Z</time>
      </trkpt>
      <trkpt lat="42.40588" lon="0.14101">
        <ele>602.3</ele>
        <time>2017-07-02T09:34:27Z</time>
      </trkpt>
      <trkpt lat="42.40585" lon="0.141">
        <ele>602.3</ele>
        <time>2017-07-02T09:34:28Z</time>
      </trkpt>
      <trkpt lat="42.4058" lon="0.14099">
        <ele>602.5</ele>
        <time>2017-07-02T09:34:30Z</time>
      </trkpt>
      <trkpt lat="42.40575" lon="0.14099">
        <ele>602.5</ele>
        <time>2017-07-02T09:34:32Z</time>
      </trkpt>
      <trkpt lat="42.40572" lon="0.14099">
        <ele>602.5</ele>
        <time>2017-07-02T09:34:33Z</time>
      </trkpt>
      <trkpt lat="42.40569" lon="0.14099">
        <ele>602.4</ele>
        <time>2017-07-02T09:34:34Z</time>
      </trkpt>
      <trkpt lat="42.40566" lon="0.14099">
        <ele>602.4</ele>
        <time>2017-07-02T09:34:35Z</time>
      </trkpt>
      <trkpt lat="42.40563" lon="0.141">
        <ele>602.3</ele>
        <time>2017-07-02T09:34:36Z</time>
      </trkpt>
      <trkpt lat="42.40561" lon="0.141">
        <ele>602.3</ele>
        <time>2017-07-02T09:34:37Z</time>
      </trkpt>
      <trkpt lat="42.40558" lon="0.14101">
        <ele>602.3</ele>
        <time>2017-07-02T09:34:38Z</time>
      </trkpt>
      <trkpt lat="42.40555" lon="0.14101">
        <ele>602.4</ele>
        <time>2017-07-02T09:34:39Z</time>
      </trkpt>
      <trkpt lat="42.40552" lon="0.14101">
        <ele>602.4</ele>
        <time>2017-07-02T09:34:40Z</time>
      </trkpt>
      <trkpt lat="42.40549" lon="0.14101">
        <ele>602.6</ele>
        <time>2017-07-02T09:34:41Z</time>
      </trkpt>
      <trkpt lat="42.40546" lon="0.14101">
        <ele>602.7</ele>
        <time>2017-07-02T09:34:42Z</time>
      </trkpt>
      <trkpt lat="42.40543" lon="0.14101">
        <ele>602.8</ele>
        <time>2017-07-02T09:34:43Z</time>
      </trkpt>
      <trkpt lat="42.4054" lon="0.14101">
        <ele>603</ele>
        <time>2017-07-02T09:34:44Z</time>
      </trkpt>
      <trkpt lat="42.40535" lon="0.141">
        <ele>603.2</ele>
        <time>2017-07-02T09:34:46Z</time>
      </trkpt>
      <trkpt lat="42.4053" lon="0.141">
        <ele>603.4</ele>
        <time>2017-07-02T09:34:48Z</time>
      </trkpt>
      <trkpt lat="42.40526" lon="0.14101">
        <ele>603.6</ele>
        <time>2017-07-02T09:34:50Z</time>
      </trkpt>
      <trkpt lat="42.40521" lon="0.14101">
        <ele>603.7</ele>
        <time>2017-07-02T09:34:52Z</time>
      </trkpt>
      <trkpt lat="42.40516" lon="0.141">
        <ele>603.8</ele>
        <time>2017-07-02T09:34:54Z</time>
      </trkpt>
      <trkpt lat="42.4051" lon="0.14101">
        <ele>604</ele>
        <time>2017-07-02T09:34:56Z</time>
      </trkpt>
      <trkpt lat="42.40508" lon="0.14101">
        <ele>604.1</ele>
        <time>2017-07-02T09:34:57Z</time>
      </trkpt>
      <trkpt lat="42.40505" lon="0.14101">
        <ele>604.2</ele>
        <time>2017-07-02T09:34:58Z</time>
      </trkpt>
      <trkpt lat="42.40502" lon="0.14102">
        <ele>604.4</ele>
        <time>2017-07-02T09:34:59Z</time>
      </trkpt>
      <trkpt lat="42.40499" lon="0.14103">
        <ele>604.6</ele>
        <time>2017-07-02T09:35:00Z</time>
      </trkpt>
      <trkpt lat="42.40495" lon="0.14103">
        <ele>604.9</ele>
        <time>2017-07-02T09:35:01Z</time>
      </trkpt>
      <trkpt lat="42.40492" lon="0.14104">
        <ele>605.2</ele>
        <time>2017-07-02T09:35:02Z</time>
      </trkpt>
      <trkpt lat="42.40489" lon="0.14104">
        <ele>605.5</ele>
        <time>2017-07-02T09:35:03Z</time>
      </trkpt>
      <trkpt lat="42.40486" lon="0.14104">
        <ele>605.8</ele>
        <time>2017-07-02T09:35:04Z</time>
      </trkpt>
      <trkpt lat="42.40483" lon="0.14105">
        <ele>606.2</ele>
        <time>2017-07-02T09:35:05Z</time>
      </trkpt>
      <trkpt lat="42.4048" lon="0.14105">
        <ele>606.4</ele>
        <time>2017-07-02T09:35:06Z</time>
      </trkpt>
      <trkpt lat="42.40476" lon="0.14106">
        <ele>606.6</ele>
        <time>2017-07-02T09:35:07Z</time>
      </trkpt>
      <trkpt lat="42.40473" lon="0.14107">
        <ele>606.9</ele>
        <time>2017-07-02T09:35:08Z</time>
      </trkpt>
      <trkpt lat="42.40469" lon="0.14108">
        <ele>607.2</ele>
        <time>2017-07-02T09:35:09Z</time>
      </trkpt>
      <trkpt lat="42.40466" lon="0.14109">
        <ele>607.5</ele>
        <time>2017-07-02T09:35:10Z</time>
      </trkpt>
      <trkpt lat="42.40462" lon="0.1411">
        <ele>607.5</ele>
        <time>2017-07-02T09:35:11Z</time>
      </trkpt>
      <trkpt lat="42.40459" lon="0.14111">
        <ele>607.6</ele>
        <time>2017-07-02T09:35:12Z</time>
      </trkpt>
      <trkpt lat="42.40456" lon="0.14112">
        <ele>607.6</ele>
        <time>2017-07-02T09:35:13Z</time>
      </trkpt>
      <trkpt lat="42.40452" lon="0.14113">
        <ele>607.5</ele>
        <time>2017-07-02T09:35:14Z</time>
      </trkpt>
      <trkpt lat="42.40449" lon="0.14113">
        <ele>607.5</ele>
        <time>2017-07-02T09:35:15Z</time>
      </trkpt>
      <trkpt lat="42.40446" lon="0.14114">
        <ele>607.3</ele>
        <time>2017-07-02T09:35:16Z</time>
      </trkpt>
      <trkpt lat="42.40442" lon="0.14115">
        <ele>607.1</ele>
        <time>2017-07-02T09:35:17Z</time>
      </trkpt>
      <trkpt lat="42.40439" lon="0.14116">
        <ele>606.9</ele>
        <time>2017-07-02T09:35:18Z</time>
      </trkpt>
      <trkpt lat="42.40436" lon="0.14118">
        <ele>606.7</ele>
        <time>2017-07-02T09:35:19Z</time>
      </trkpt>
      <trkpt lat="42.40432" lon="0.14119">
        <ele>606.4</ele>
        <time>2017-07-02T09:35:20Z</time>
      </trkpt>
      <trkpt lat="42.40429" lon="0.1412">
        <ele>606</ele>
        <time>2017-07-02T09:35:21Z</time>
      </trkpt>
      <trkpt lat="42.40426" lon="0.14121">
        <ele>605.6</ele>
        <time>2017-07-02T09:35:22Z</time>
      </trkpt>
      <trkpt lat="42.40422" lon="0.14122">
        <ele>605.2</ele>
        <time>2017-07-02T09:35:23Z</time>
      </trkpt>
      <trkpt lat="42.40419" lon="0.14123">
        <ele>604.8</ele>
        <time>2017-07-02T09:35:24Z</time>
      </trkpt>
      <trkpt lat="42.40416" lon="0.14124">
        <ele>604.5</ele>
        <time>2017-07-02T09:35:25Z</time>
      </trkpt>
      <trkpt lat="42.40412" lon="0.14126">
        <ele>604.2</ele>
        <time>2017-07-02T09:35:26Z</time>
      </trkpt>
      <trkpt lat="42.40409" lon="0.14127">
        <ele>603.9</ele>
        <time>2017-07-02T09:35:27Z</time>
      </trkpt>
      <trkpt lat="42.40406" lon="0.14129">
        <ele>603.6</ele>
        <time>2017-07-02T09:35:28Z</time>
      </trkpt>
      <trkpt lat="42.40402" lon="0.1413">
        <ele>603.2</ele>
        <time>2017-07-02T09:35:29Z</time>
      </trkpt>
      <trkpt lat="42.40399" lon="0.14132">
        <ele>602.8</ele>
        <time>2017-07-02T09:35:30Z</time>
      </trkpt>
      <trkpt lat="42.40396" lon="0.14134">
        <ele>602.4</ele>
        <time>2017-07-02T09:35:31Z</time>
      </trkpt>
      <trkpt lat="42.40393" lon="0.14135">
        <ele>602</ele>
        <time>2017-07-02T09:35:32Z</time>
      </trkpt>
      <trkpt lat="42.40389" lon="0.14137">
        <ele>601.7</ele>
        <time>2017-07-02T09:35:33Z</time>
      </trkpt>
      <trkpt lat="42.40386" lon="0.14138">
        <ele>601.5</ele>
        <time>2017-07-02T09:35:34Z</time>
      </trkpt>
      <trkpt lat="42.40383" lon="0.14139">
        <ele>601.3</ele>
        <time>2017-07-02T09:35:35Z</time>
      </trkpt>
      <trkpt lat="42.4038" lon="0.14141">
        <ele>601.1</ele>
        <time>2017-07-02T09:35:36Z</time>
      </trkpt>
      <trkpt lat="42.40376" lon="0.14143">
        <ele>601</ele>
        <time>2017-07-02T09:35:37Z</time>
      </trkpt>
      <trkpt lat="42.40373" lon="0.14145">
        <ele>600.8</ele>
        <time>2017-07-02T09:35:38Z</time>
      </trkpt>
      <trkpt lat="42.40369" lon="0.14148">
        <ele>600.7</ele>
        <time>2017-07-02T09:35:39Z</time>
      </trkpt>
      <trkpt lat="42.40365" lon="0.14152">
        <ele>600.5</ele>
        <time>2017-07-02T09:35:40Z</time>
      </trkpt>
      <trkpt lat="42.40361" lon="0.14157">
        <ele>600.3</ele>
        <time>2017-07-02T09:35:41Z</time>
      </trkpt>
      <trkpt lat="42.40356" lon="0.14161">
        <ele>600.5</ele>
        <time>2017-07-02T09:35:42Z</time>
      </trkpt>
      <trkpt lat="42.40351" lon="0.14166">
        <ele>601.1</ele>
        <time>2017-07-02T09:35:43Z</time>
      </trkpt>
      <trkpt lat="42.40346" lon="0.1417">
        <ele>602</ele>
        <time>2017-07-02T09:35:44Z</time>
      </trkpt>
      <trkpt lat="42.4034" lon="0.14173">
        <ele>603.2</ele>
        <time>2017-07-02T09:35:45Z</time>
      </trkpt>
      <trkpt lat="42.40335" lon="0.14176">
        <ele>604.3</ele>
        <time>2017-07-02T09:35:46Z</time>
      </trkpt>
      <trkpt lat="42.4033" lon="0.14178">
        <ele>604.9</ele>
        <time>2017-07-02T09:35:47Z</time>
      </trkpt>
      <trkpt lat="42.40326" lon="0.14178">
        <ele>605.3</ele>
        <time>2017-07-02T09:35:48Z</time>
      </trkpt>
      <trkpt lat="42.40322" lon="0.14178">
        <ele>605.6</ele>
        <time>2017-07-02T09:35:49Z</time>
      </trkpt>
      <trkpt lat="42.40319" lon="0.14177">
        <ele>605.7</ele>
        <time>2017-07-02T09:35:50Z</time>
      </trkpt>
      <trkpt lat="42.40315" lon="0.14175">
        <ele>605.6</ele>
        <time>2017-07-02T09:35:52Z</time>
      </trkpt>
      <trkpt lat="42.40311" lon="0.14174">
        <ele>605.8</ele>
        <time>2017-07-02T09:35:54Z</time>
      </trkpt>
      <trkpt lat="42.40308" lon="0.14173">
        <ele>606.1</ele>
        <time>2017-07-02T09:35:56Z</time>
      </trkpt>
      <trkpt lat="42.40305" lon="0.14171">
        <ele>606.5</ele>
        <time>2017-07-02T09:35:59Z</time>
      </trkpt>
      <trkpt lat="42.40296" lon="0.14173">
        <ele>608.2</ele>
        <time>2017-07-02T09:36:55Z</time>
      </trkpt>
      <trkpt lat="42.40293" lon="0.14174">
        <ele>609</ele>
        <time>2017-07-02T09:36:56Z</time>
      </trkpt>
      <trkpt lat="42.4029" lon="0.14176">
        <ele>609.6</ele>
        <time>2017-07-02T09:36:57Z</time>
      </trkpt>
      <trkpt lat="42.40287" lon="0.14177">
        <ele>610.2</ele>
        <time>2017-07-02T09:36:58Z</time>
      </trkpt>
      <trkpt lat="42.40284" lon="0.14179">
        <ele>610.5</ele>
        <time>2017-07-02T09:36:59Z</time>
      </trkpt>
      <trkpt lat="42.40281" lon="0.14181">
        <ele>610.8</ele>
        <time>2017-07-02T09:37:00Z</time>
      </trkpt>
      <trkpt lat="42.40278" lon="0.14182">
        <ele>611</ele>
        <time>2017-07-02T09:37:01Z</time>
      </trkpt>
      <trkpt lat="42.40274" lon="0.14185">
        <ele>611.4</ele>
        <time>2017-07-02T09:37:03Z</time>
      </trkpt>
      <trkpt lat="42.40269" lon="0.14186">
        <ele>611.5</ele>
        <time>2017-07-02T09:37:05Z</time>
      </trkpt>
      <trkpt lat="42.40265" lon="0.14185">
        <ele>611.7</ele>
        <time>2017-07-02T09:37:07Z</time>
      </trkpt>
      <trkpt lat="42.40261" lon="0.14185">
        <ele>612</ele>
        <time>2017-07-02T09:37:09Z</time>
      </trkpt>
      <trkpt lat="42.40257" lon="0.14185">
        <ele>612.3</ele>
        <time>2017-07-02T09:37:11Z</time>
      </trkpt>
      <trkpt lat="42.40253" lon="0.14182">
        <ele>612.6</ele>
        <time>2017-07-02T09:37:14Z</time>
      </trkpt>
      <trkpt lat="42.40252" lon="0.14174">
        <ele>614.4</ele>
        <time>2017-07-02T09:37:16Z</time>
      </trkpt>
      <trkpt lat="42.40252" lon="0.14167">
        <ele>616</ele>
        <time>2017-07-02T09:37:18Z</time>
      </trkpt>
      <trkpt lat="42.40251" lon="0.14161">
        <ele>618.3</ele>
        <time>2017-07-02T09:37:20Z</time>
      </trkpt>
      <trkpt lat="42.40251" lon="0.14155">
        <ele>620.5</ele>
        <time>2017-07-02T09:37:22Z</time>
      </trkpt>
      <trkpt lat="42.4025" lon="0.14148">
        <ele>623.2</ele>
        <time>2017-07-02T09:37:24Z</time>
      </trkpt>
      <trkpt lat="42.4025" lon="0.14142">
        <ele>624.6</ele>
        <time>2017-07-02T09:37:26Z</time>
      </trkpt>
      <trkpt lat="42.40249" lon="0.14137">
        <ele>626.4</ele>
        <time>2017-07-02T09:37:28Z</time>
      </trkpt>
      <trkpt lat="42.40249" lon="0.14131">
        <ele>627.9</ele>
        <time>2017-07-02T09:37:30Z</time>
      </trkpt>
      <trkpt lat="42.40249" lon="0.14125">
        <ele>628.9</ele>
        <time>2017-07-02T09:37:32Z</time>
      </trkpt>
      <trkpt lat="42.40248" lon="0.14121">
        <ele>629.4</ele>
        <time>2017-07-02T09:37:34Z</time>
      </trkpt>
      <trkpt lat="42.40247" lon="0.14116">
        <ele>629.8</ele>
        <time>2017-07-02T09:37:36Z</time>
      </trkpt>
      <trkpt lat="42.40246" lon="0.14112">
        <ele>630.3</ele>
        <time>2017-07-02T09:37:38Z</time>
      </trkpt>
      <trkpt lat="42.40245" lon="0.14108">
        <ele>630.8</ele>
        <time>2017-07-02T09:37:40Z</time>
      </trkpt>
      <trkpt lat="42.40243" lon="0.14103">
        <ele>631.4</ele>
        <time>2017-07-02T09:37:42Z</time>
      </trkpt>
      <trkpt lat="42.40242" lon="0.14098">
        <ele>631.9</ele>
        <time>2017-07-02T09:37:44Z</time>
      </trkpt>
      <trkpt lat="42.40241" lon="0.14093">
        <ele>632.7</ele>
        <time>2017-07-02T09:37:46Z</time>
      </trkpt>
      <trkpt lat="42.40239" lon="0.14089">
        <ele>634</ele>
        <time>2017-07-02T09:37:48Z</time>
      </trkpt>
      <trkpt lat="42.40236" lon="0.14084">
        <ele>635</ele>
        <time>2017-07-02T09:37:50Z</time>
      </trkpt>
      <trkpt lat="42.40234" lon="0.1408">
        <ele>635.6</ele>
        <time>2017-07-02T09:37:52Z</time>
      </trkpt>
      <trkpt lat="42.40231" lon="0.14075">
        <ele>636.3</ele>
        <time>2017-07-02T09:37:54Z</time>
      </trkpt>
      <trkpt lat="42.40229" lon="0.1407">
        <ele>636.9</ele>
        <time>2017-07-02T09:37:56Z</time>
      </trkpt>
      <trkpt lat="42.40227" lon="0.14067">
        <ele>637.2</ele>
        <time>2017-07-02T09:37:58Z</time>
      </trkpt>
      <trkpt lat="42.40224" lon="0.14064">
        <ele>637.7</ele>
        <time>2017-07-02T09:38:00Z</time>
      </trkpt>
      <trkpt lat="42.4022" lon="0.14059">
        <ele>638</ele>
        <time>2017-07-02T09:38:02Z</time>
      </trkpt>
      <trkpt lat="42.40218" lon="0.14056">
        <ele>638.2</ele>
        <time>2017-07-02T09:38:03Z</time>
      </trkpt>
      <trkpt lat="42.40214" lon="0.14054">
        <ele>638.4</ele>
        <time>2017-07-02T09:38:04Z</time>
      </trkpt>
      <trkpt lat="42.4021" lon="0.14053">
        <ele>638.7</ele>
        <time>2017-07-02T09:38:05Z</time>
      </trkpt>
      <trkpt lat="42.40205" lon="0.14052">
        <ele>638.9</ele>
        <time>2017-07-02T09:38:06Z</time>
      </trkpt>
      <trkpt lat="42.40199" lon="0.14051">
        <ele>639.2</ele>
        <time>2017-07-02T09:38:07Z</time>
      </trkpt>
      <trkpt lat="42.40194" lon="0.14049">
        <ele>639.6</ele>
        <time>2017-07-02T09:38:08Z</time>
      </trkpt>
      <trkpt lat="42.4019" lon="0.14046">
        <ele>639.9</ele>
        <time>2017-07-02T09:38:09Z</time>
      </trkpt>
      <trkpt lat="42.40186" lon="0.14042">
        <ele>640.2</ele>
        <time>2017-07-02T09:38:10Z</time>
      </trkpt>
      <trkpt lat="42.40183" lon="0.14038">
        <ele>640.4</ele>
        <time>2017-07-02T09:38:11Z</time>
      </trkpt>
      <trkpt lat="42.40182" lon="0.14034">
        <ele>640.8</ele>
        <time>2017-07-02T09:38:12Z</time>
      </trkpt>
      <trkpt lat="42.4018" lon="0.14031">
        <ele>641</ele>
        <time>2017-07-02T09:38:13Z</time>
      </trkpt>
      <trkpt lat="42.40177" lon="0.14026">
        <ele>641.3</ele>
        <time>2017-07-02T09:38:15Z</time>
      </trkpt>
      <trkpt lat="42.40174" lon="0.14023">
        <ele>641.6</ele>
        <time>2017-07-02T09:38:17Z</time>
      </trkpt>
      <trkpt lat="42.4017" lon="0.14021">
        <ele>642</ele>
        <time>2017-07-02T09:38:19Z</time>
      </trkpt>
      <trkpt lat="42.40167" lon="0.14018">
        <ele>642.4</ele>
        <time>2017-07-02T09:38:21Z</time>
      </trkpt>
      <trkpt lat="42.40164" lon="0.14015">
        <ele>642.8</ele>
        <time>2017-07-02T09:38:23Z</time>
      </trkpt>
      <trkpt lat="42.4016" lon="0.14013">
        <ele>643.7</ele>
        <time>2017-07-02T09:38:25Z</time>
      </trkpt>
      <trkpt lat="42.40156" lon="0.14011">
        <ele>645</ele>
        <time>2017-07-02T09:38:27Z</time>
      </trkpt>
      <trkpt lat="42.40153" lon="0.14009">
        <ele>646.2</ele>
        <time>2017-07-02T09:38:29Z</time>
      </trkpt>
      <trkpt lat="42.40151" lon="0.14007">
        <ele>646.7</ele>
        <time>2017-07-02T09:38:33Z</time>
      </trkpt>
      <trkpt lat="42.40147" lon="0.14006">
        <ele>647.5</ele>
        <time>2017-07-02T09:38:36Z</time>
      </trkpt>
      <trkpt lat="42.40143" lon="0.14005">
        <ele>648.1</ele>
        <time>2017-07-02T09:38:38Z</time>
      </trkpt>
      <trkpt lat="42.4014" lon="0.14003">
        <ele>649</ele>
        <time>2017-07-02T09:38:40Z</time>
      </trkpt>
      <trkpt lat="42.40137" lon="0.14002">
        <ele>649.9</ele>
        <time>2017-07-02T09:38:42Z</time>
      </trkpt>
      <trkpt lat="42.40134" lon="0.14">
        <ele>651.2</ele>
        <time>2017-07-02T09:38:44Z</time>
      </trkpt>
      <trkpt lat="42.40131" lon="0.13998">
        <ele>652.7</ele>
        <time>2017-07-02T09:38:46Z</time>
      </trkpt>
      <trkpt lat="42.40128" lon="0.13995">
        <ele>654.1</ele>
        <time>2017-07-02T09:38:48Z</time>
      </trkpt>
      <trkpt lat="42.40124" lon="0.13993">
        <ele>654.7</ele>
        <time>2017-07-02T09:38:50Z</time>
      </trkpt>
      <trkpt lat="42.40121" lon="0.13991">
        <ele>655.3</ele>
        <time>2017-07-02T09:38:52Z</time>
      </trkpt>
      <trkpt lat="42.40118" lon="0.13989">
        <ele>655.9</ele>
        <time>2017-07-02T09:38:54Z</time>
      </trkpt>
      <trkpt lat="42.40114" lon="0.13987">
        <ele>657.4</ele>
        <time>2017-07-02T09:38:56Z</time>
      </trkpt>
      <trkpt lat="42.40112" lon="0.13983">
        <ele>658.5</ele>
        <time>2017-07-02T09:38:58Z</time>
      </trkpt>
      <trkpt lat="42.40109" lon="0.1398">
        <ele>659.3</ele>
        <time>2017-07-02T09:39:00Z</time>
      </trkpt>
      <trkpt lat="42.40107" lon="0.13977">
        <ele>660</ele>
        <time>2017-07-02T09:39:02Z</time>
      </trkpt>
      <trkpt lat="42.40104" lon="0.13975">
        <ele>661.1</ele>
        <time>2017-07-02T09:39:04Z</time>
      </trkpt>
      <trkpt lat="42.40101" lon="0.13974">
        <ele>662.7</ele>
        <time>2017-07-02T09:39:06Z</time>
      </trkpt>
      <trkpt lat="42.40098" lon="0.13973">
        <ele>663.9</ele>
        <time>2017-07-02T09:39:08Z</time>
      </trkpt>
      <trkpt lat="42.40095" lon="0.13972">
        <ele>664.7</ele>
        <time>2017-07-02T09:39:10Z</time>
      </trkpt>
      <trkpt lat="42.40092" lon="0.1397">
        <ele>665.5</ele>
        <time>2017-07-02T09:39:12Z</time>
      </trkpt>
      <trkpt lat="42.4009" lon="0.13968">
        <ele>666.8</ele>
        <time>2017-07-02T09:39:14Z</time>
      </trkpt>
      <trkpt lat="42.40088" lon="0.13966">
        <ele>668.3</ele>
        <time>2017-07-02T09:39:16Z</time>
      </trkpt>
      <trkpt lat="42.40085" lon="0.13965">
        <ele>669.6</ele>
        <time>2017-07-02T09:39:18Z</time>
      </trkpt>
      <trkpt lat="42.40083" lon="0.13961">
        <ele>670.6</ele>
        <time>2017-07-02T09:39:21Z</time>
      </trkpt>
      <trkpt lat="42.40082" lon="0.13956">
        <ele>672.2</ele>
        <time>2017-07-02T09:39:24Z</time>
      </trkpt>
      <trkpt lat="42.4008" lon="0.13952">
        <ele>675.1</ele>
        <time>2017-07-02T09:39:27Z</time>
      </trkpt>
      <trkpt lat="42.40078" lon="0.13949">
        <ele>675.4</ele>
        <time>2017-07-02T09:39:30Z</time>
      </trkpt>
      <trkpt lat="42.40075" lon="0.13949">
        <ele>676</ele>
        <time>2017-07-02T09:39:33Z</time>
      </trkpt>
      <trkpt lat="42.40071" lon="0.13948">
        <ele>676.7</ele>
        <time>2017-07-02T09:39:36Z</time>
      </trkpt>
      <trkpt lat="42.40068" lon="0.13949">
        <ele>677.2</ele>
        <time>2017-07-02T09:39:39Z</time>
      </trkpt>
      <trkpt lat="42.40067" lon="0.13953">
        <ele>677.8</ele>
        <time>2017-07-02T09:39:42Z</time>
      </trkpt>
      <trkpt lat="42.40065" lon="0.13956">
        <ele>678.5</ele>
        <time>2017-07-02T09:39:46Z</time>
      </trkpt>
      <trkpt lat="42.40063" lon="0.13959">
        <ele>679.1</ele>
        <time>2017-07-02T09:39:49Z</time>
      </trkpt>
      <trkpt lat="42.40062" lon="0.13963">
        <ele>679.6</ele>
        <time>2017-07-02T09:39:52Z</time>
      </trkpt>
      <trkpt lat="42.4006" lon="0.13968">
        <ele>680.4</ele>
        <time>2017-07-02T09:39:55Z</time>
      </trkpt>
      <trkpt lat="42.40058" lon="0.13971">
        <ele>680.7</ele>
        <time>2017-07-02T09:39:58Z</time>
      </trkpt>
      <trkpt lat="42.40056" lon="0.13973">
        <ele>681</ele>
        <time>2017-07-02T09:40:01Z</time>
      </trkpt>
      <trkpt lat="42.40053" lon="0.13975">
        <ele>681.4</ele>
        <time>2017-07-02T09:40:04Z</time>
      </trkpt>
      <trkpt lat="42.4005" lon="0.13977">
        <ele>682.1</ele>
        <time>2017-07-02T09:40:07Z</time>
      </trkpt>
      <trkpt lat="42.40047" lon="0.13977">
        <ele>682.6</ele>
        <time>2017-07-02T09:40:09Z</time>
      </trkpt>
      <trkpt lat="42.40044" lon="0.13979">
        <ele>683</ele>
        <time>2017-07-02T09:40:12Z</time>
      </trkpt>
      <trkpt lat="42.40041" lon="0.13982">
        <ele>683.6</ele>
        <time>2017-07-02T09:40:17Z</time>
      </trkpt>
      <trkpt lat="42.40037" lon="0.13983">
        <ele>684.3</ele>
        <time>2017-07-02T09:40:20Z</time>
      </trkpt>
      <trkpt lat="42.40034" lon="0.13983">
        <ele>684.7</ele>
        <time>2017-07-02T09:40:23Z</time>
      </trkpt>
      <trkpt lat="42.4003" lon="0.13983">
        <ele>685.4</ele>
        <time>2017-07-02T09:40:26Z</time>
      </trkpt>
      <trkpt lat="42.40027" lon="0.13985">
        <ele>685.7</ele>
        <time>2017-07-02T09:40:28Z</time>
      </trkpt>
      <trkpt lat="42.40024" lon="0.13987">
        <ele>686</ele>
        <time>2017-07-02T09:40:30Z</time>
      </trkpt>
      <trkpt lat="42.40021" lon="0.13989">
        <ele>686.1</ele>
        <time>2017-07-02T09:40:32Z</time>
      </trkpt>
      <trkpt lat="42.40018" lon="0.1399">
        <ele>686.3</ele>
        <time>2017-07-02T09:40:34Z</time>
      </trkpt>
      <trkpt lat="42.40015" lon="0.13989">
        <ele>686.4</ele>
        <time>2017-07-02T09:40:37Z</time>
      </trkpt>
      <trkpt lat="42.40012" lon="0.13988">
        <ele>686.8</ele>
        <time>2017-07-02T09:40:40Z</time>
      </trkpt>
      <trkpt lat="42.40008" lon="0.13989">
        <ele>687.3</ele>
        <time>2017-07-02T09:40:43Z</time>
      </trkpt>
      <trkpt lat="42.40006" lon="0.13991">
        <ele>687.6</ele>
        <time>2017-07-02T09:40:45Z</time>
      </trkpt>
      <trkpt lat="42.40003" lon="0.13993">
        <ele>687.9</ele>
        <time>2017-07-02T09:40:48Z</time>
      </trkpt>
      <trkpt lat="42.4" lon="0.13995">
        <ele>688.1</ele>
        <time>2017-07-02T09:40:52Z</time>
      </trkpt>
      <trkpt lat="42.39997" lon="0.13997">
        <ele>688.3</ele>
        <time>2017-07-02T09:40:55Z</time>
      </trkpt>
      <trkpt lat="42.39994" lon="0.14001">
        <ele>688.4</ele>
        <time>2017-07-02T09:40:58Z</time>
      </trkpt>
      <trkpt lat="42.39992" lon="0.14003">
        <ele>688.6</ele>
        <time>2017-07-02T09:41:00Z</time>
      </trkpt>
      <trkpt lat="42.3999" lon="0.14005">
        <ele>689</ele>
        <time>2017-07-02T09:41:02Z</time>
      </trkpt>
      <trkpt lat="42.39987" lon="0.14007">
        <ele>689.4</ele>
        <time>2017-07-02T09:41:04Z</time>
      </trkpt>
      <trkpt lat="42.39983" lon="0.14009">
        <ele>689.8</ele>
        <time>2017-07-02T09:41:06Z</time>
      </trkpt>
      <trkpt lat="42.39979" lon="0.14011">
        <ele>690.1</ele>
        <time>2017-07-02T09:41:08Z</time>
      </trkpt>
      <trkpt lat="42.39976" lon="0.14014">
        <ele>690.7</ele>
        <time>2017-07-02T09:41:10Z</time>
      </trkpt>
      <trkpt lat="42.39974" lon="0.14016">
        <ele>691.2</ele>
        <time>2017-07-02T09:41:12Z</time>
      </trkpt>
      <trkpt lat="42.39972" lon="0.14019">
        <ele>691.8</ele>
        <time>2017-07-02T09:41:14Z</time>
      </trkpt>
      <trkpt lat="42.39969" lon="0.14021">
        <ele>692.2</ele>
        <time>2017-07-02T09:41:16Z</time>
      </trkpt>
      <trkpt lat="42.39966" lon="0.14024">
        <ele>692.8</ele>
        <time>2017-07-02T09:41:18Z</time>
      </trkpt>
      <trkpt lat="42.39963" lon="0.14026">
        <ele>693.4</ele>
        <time>2017-07-02T09:41:20Z</time>
      </trkpt>
      <trkpt lat="42.39959" lon="0.14027">
        <ele>693.8</ele>
        <time>2017-07-02T09:41:22Z</time>
      </trkpt>
      <trkpt lat="42.39954" lon="0.14027">
        <ele>694.2</ele>
        <time>2017-07-02T09:41:24Z</time>
      </trkpt>
      <trkpt lat="42.3995" lon="0.14029">
        <ele>694.9</ele>
        <time>2017-07-02T09:41:26Z</time>
      </trkpt>
      <trkpt lat="42.39947" lon="0.1403">
        <ele>695.4</ele>
        <time>2017-07-02T09:41:28Z</time>
      </trkpt>
      <trkpt lat="42.39944" lon="0.14032">
        <ele>695.7</ele>
        <time>2017-07-02T09:41:30Z</time>
      </trkpt>
      <trkpt lat="42.39943" lon="0.14035">
        <ele>695.9</ele>
        <time>2017-07-02T09:41:32Z</time>
      </trkpt>
      <trkpt lat="42.39941" lon="0.14038">
        <ele>696.1</ele>
        <time>2017-07-02T09:41:34Z</time>
      </trkpt>
      <trkpt lat="42.39938" lon="0.14041">
        <ele>696.6</ele>
        <time>2017-07-02T09:41:36Z</time>
      </trkpt>
      <trkpt lat="42.39936" lon="0.14043">
        <ele>697</ele>
        <time>2017-07-02T09:41:38Z</time>
      </trkpt>
      <trkpt lat="42.39933" lon="0.14046">
        <ele>697.4</ele>
        <time>2017-07-02T09:41:40Z</time>
      </trkpt>
      <trkpt lat="42.3993" lon="0.14048">
        <ele>698</ele>
        <time>2017-07-02T09:41:42Z</time>
      </trkpt>
      <trkpt lat="42.39927" lon="0.14049">
        <ele>698.4</ele>
        <time>2017-07-02T09:41:44Z</time>
      </trkpt>
      <trkpt lat="42.39923" lon="0.14049">
        <ele>698.7</ele>
        <time>2017-07-02T09:41:47Z</time>
      </trkpt>
      <trkpt lat="42.3992" lon="0.14049">
        <ele>698.9</ele>
        <time>2017-07-02T09:41:49Z</time>
      </trkpt>
      <trkpt lat="42.39917" lon="0.14048">
        <ele>698.9</ele>
        <time>2017-07-02T09:41:51Z</time>
      </trkpt>
      <trkpt lat="42.39914" lon="0.14045">
        <ele>699</ele>
        <time>2017-07-02T09:41:53Z</time>
      </trkpt>
      <trkpt lat="42.39912" lon="0.14042">
        <ele>699.1</ele>
        <time>2017-07-02T09:41:55Z</time>
      </trkpt>
      <trkpt lat="42.39909" lon="0.1404">
        <ele>699.1</ele>
        <time>2017-07-02T09:41:57Z</time>
      </trkpt>
      <trkpt lat="42.39906" lon="0.14039">
        <ele>699.2</ele>
        <time>2017-07-02T09:41:59Z</time>
      </trkpt>
      <trkpt lat="42.39903" lon="0.14037">
        <ele>699.3</ele>
        <time>2017-07-02T09:42:01Z</time>
      </trkpt>
      <trkpt lat="42.399" lon="0.14036">
        <ele>699.4</ele>
        <time>2017-07-02T09:42:03Z</time>
      </trkpt>
      <trkpt lat="42.39895" lon="0.14038">
        <ele>699.6</ele>
        <time>2017-07-02T09:42:05Z</time>
      </trkpt>
      <trkpt lat="42.39892" lon="0.14041">
        <ele>699.7</ele>
        <time>2017-07-02T09:42:07Z</time>
      </trkpt>
      <trkpt lat="42.39888" lon="0.14045">
        <ele>700.2</ele>
        <time>2017-07-02T09:42:09Z</time>
      </trkpt>
      <trkpt lat="42.39885" lon="0.14048">
        <ele>700.6</ele>
        <time>2017-07-02T09:42:10Z</time>
      </trkpt>
      <trkpt lat="42.39882" lon="0.14051">
        <ele>700.9</ele>
        <time>2017-07-02T09:42:11Z</time>
      </trkpt>
      <trkpt lat="42.3988" lon="0.14054">
        <ele>701</ele>
        <time>2017-07-02T09:42:12Z</time>
      </trkpt>
      <trkpt lat="42.39876" lon="0.14058">
        <ele>701.4</ele>
        <time>2017-07-02T09:42:14Z</time>
      </trkpt>
      <trkpt lat="42.39873" lon="0.14062">
        <ele>702</ele>
        <time>2017-07-02T09:42:16Z</time>
      </trkpt>
      <trkpt lat="42.39869" lon="0.14066">
        <ele>702.4</ele>
        <time>2017-07-02T09:42:18Z</time>
      </trkpt>
      <trkpt lat="42.39866" lon="0.14067">
        <ele>702.6</ele>
        <time>2017-07-02T09:42:20Z</time>
      </trkpt>
      <trkpt lat="42.39862" lon="0.14067">
        <ele>702.8</ele>
        <time>2017-07-02T09:42:22Z</time>
      </trkpt>
      <trkpt lat="42.39858" lon="0.14068">
        <ele>703</ele>
        <time>2017-07-02T09:42:24Z</time>
      </trkpt>
      <trkpt lat="42.39855" lon="0.14068">
        <ele>703.1</ele>
        <time>2017-07-02T09:42:26Z</time>
      </trkpt>
      <trkpt lat="42.39851" lon="0.14066">
        <ele>703.5</ele>
        <time>2017-07-02T09:42:28Z</time>
      </trkpt>
      <trkpt lat="42.39848" lon="0.14065">
        <ele>703.9</ele>
        <time>2017-07-02T09:42:30Z</time>
      </trkpt>
      <trkpt lat="42.39845" lon="0.14066">
        <ele>704.4</ele>
        <time>2017-07-02T09:42:32Z</time>
      </trkpt>
      <trkpt lat="42.39841" lon="0.14071">
        <ele>704.7</ele>
        <time>2017-07-02T09:42:34Z</time>
      </trkpt>
      <trkpt lat="42.39839" lon="0.14077">
        <ele>705.3</ele>
        <time>2017-07-02T09:42:36Z</time>
      </trkpt>
      <trkpt lat="42.39836" lon="0.14082">
        <ele>706</ele>
        <time>2017-07-02T09:42:38Z</time>
      </trkpt>
      <trkpt lat="42.39834" lon="0.14086">
        <ele>706.5</ele>
        <time>2017-07-02T09:42:40Z</time>
      </trkpt>
      <trkpt lat="42.39831" lon="0.14089">
        <ele>706.8</ele>
        <time>2017-07-02T09:42:42Z</time>
      </trkpt>
      <trkpt lat="42.39828" lon="0.14089">
        <ele>707.4</ele>
        <time>2017-07-02T09:42:44Z</time>
      </trkpt>
      <trkpt lat="42.39824" lon="0.14088">
        <ele>707.9</ele>
        <time>2017-07-02T09:42:46Z</time>
      </trkpt>
      <trkpt lat="42.3982" lon="0.14086">
        <ele>708.2</ele>
        <time>2017-07-02T09:42:48Z</time>
      </trkpt>
      <trkpt lat="42.39816" lon="0.14085">
        <ele>708.4</ele>
        <time>2017-07-02T09:42:50Z</time>
      </trkpt>
      <trkpt lat="42.39813" lon="0.14084">
        <ele>708.9</ele>
        <time>2017-07-02T09:42:52Z</time>
      </trkpt>
      <trkpt lat="42.3981" lon="0.14085">
        <ele>709.5</ele>
        <time>2017-07-02T09:42:54Z</time>
      </trkpt>
      <trkpt lat="42.39806" lon="0.14085">
        <ele>710.2</ele>
        <time>2017-07-02T09:42:57Z</time>
      </trkpt>
      <trkpt lat="42.39802" lon="0.14085">
        <ele>710.7</ele>
        <time>2017-07-02T09:43:00Z</time>
      </trkpt>
      <trkpt lat="42.39798" lon="0.14087">
        <ele>711.3</ele>
        <time>2017-07-02T09:43:03Z</time>
      </trkpt>
      <trkpt lat="42.39796" lon="0.14089">
        <ele>711.8</ele>
        <time>2017-07-02T09:43:05Z</time>
      </trkpt>
      <trkpt lat="42.39793" lon="0.14091">
        <ele>712.1</ele>
        <time>2017-07-02T09:43:07Z</time>
      </trkpt>
      <trkpt lat="42.3979" lon="0.14093">
        <ele>712.4</ele>
        <time>2017-07-02T09:43:09Z</time>
      </trkpt>
      <trkpt lat="42.39788" lon="0.14095">
        <ele>712.8</ele>
        <time>2017-07-02T09:43:11Z</time>
      </trkpt>
      <trkpt lat="42.39785" lon="0.14098">
        <ele>713.2</ele>
        <time>2017-07-02T09:43:13Z</time>
      </trkpt>
      <trkpt lat="42.39783" lon="0.14101">
        <ele>713.3</ele>
        <time>2017-07-02T09:43:15Z</time>
      </trkpt>
      <trkpt lat="42.39781" lon="0.14103">
        <ele>713.4</ele>
        <time>2017-07-02T09:43:17Z</time>
      </trkpt>
      <trkpt lat="42.39779" lon="0.14106">
        <ele>713.4</ele>
        <time>2017-07-02T09:43:19Z</time>
      </trkpt>
      <trkpt lat="42.39776" lon="0.14109">
        <ele>713.5</ele>
        <time>2017-07-02T09:43:21Z</time>
      </trkpt>
      <trkpt lat="42.39773" lon="0.14112">
        <ele>713.5</ele>
        <time>2017-07-02T09:43:23Z</time>
      </trkpt>
      <trkpt lat="42.39771" lon="0.14115">
        <ele>713.4</ele>
        <time>2017-07-02T09:43:25Z</time>
      </trkpt>
      <trkpt lat="42.39767" lon="0.14117">
        <ele>713.3</ele>
        <time>2017-07-02T09:43:27Z</time>
      </trkpt>
      <trkpt lat="42.39764" lon="0.1412">
        <ele>713.2</ele>
        <time>2017-07-02T09:43:29Z</time>
      </trkpt>
      <trkpt lat="42.39761" lon="0.14123">
        <ele>713</ele>
        <time>2017-07-02T09:43:31Z</time>
      </trkpt>
      <trkpt lat="42.39757" lon="0.14127">
        <ele>712.9</ele>
        <time>2017-07-02T09:43:33Z</time>
      </trkpt>
      <trkpt lat="42.39754" lon="0.14129">
        <ele>712.7</ele>
        <time>2017-07-02T09:43:35Z</time>
      </trkpt>
      <trkpt lat="42.39751" lon="0.14131">
        <ele>712.5</ele>
        <time>2017-07-02T09:43:37Z</time>
      </trkpt>
      <trkpt lat="42.39747" lon="0.14133">
        <ele>712.2</ele>
        <time>2017-07-02T09:43:39Z</time>
      </trkpt>
      <trkpt lat="42.39744" lon="0.14136">
        <ele>711.7</ele>
        <time>2017-07-02T09:43:41Z</time>
      </trkpt>
      <trkpt lat="42.39741" lon="0.1414">
        <ele>711</ele>
        <time>2017-07-02T09:43:43Z</time>
      </trkpt>
      <trkpt lat="42.39737" lon="0.14144">
        <ele>710.2</ele>
        <time>2017-07-02T09:43:45Z</time>
      </trkpt>
      <trkpt lat="42.39734" lon="0.14146">
        <ele>709.7</ele>
        <time>2017-07-02T09:43:46Z</time>
      </trkpt>
      <trkpt lat="42.39731" lon="0.14148">
        <ele>709</ele>
        <time>2017-07-02T09:43:47Z</time>
      </trkpt>
      <trkpt lat="42.39727" lon="0.1415">
        <ele>708.3</ele>
        <time>2017-07-02T09:43:48Z</time>
      </trkpt>
      <trkpt lat="42.39724" lon="0.14152">
        <ele>707.5</ele>
        <time>2017-07-02T09:43:49Z</time>
      </trkpt>
      <trkpt lat="42.3972" lon="0.14152">
        <ele>706.6</ele>
        <time>2017-07-02T09:43:50Z</time>
      </trkpt>
      <trkpt lat="42.39717" lon="0.14151">
        <ele>705.9</ele>
        <time>2017-07-02T09:43:51Z</time>
      </trkpt>
      <trkpt lat="42.39712" lon="0.14151">
        <ele>704.7</ele>
        <time>2017-07-02T09:43:53Z</time>
      </trkpt>
      <trkpt lat="42.39708" lon="0.14151">
        <ele>703.7</ele>
        <time>2017-07-02T09:43:55Z</time>
      </trkpt>
      <trkpt lat="42.39702" lon="0.14149">
        <ele>702.3</ele>
        <time>2017-07-02T09:43:57Z</time>
      </trkpt>
      <trkpt lat="42.397" lon="0.14147">
        <ele>701.5</ele>
        <time>2017-07-02T09:43:58Z</time>
      </trkpt>
      <trkpt lat="42.39695" lon="0.14144">
        <ele>699.5</ele>
        <time>2017-07-02T09:44:00Z</time>
      </trkpt>
      <trkpt lat="42.3969" lon="0.14142">
        <ele>698.1</ele>
        <time>2017-07-02T09:44:02Z</time>
      </trkpt>
      <trkpt lat="42.39686" lon="0.14141">
        <ele>696.9</ele>
        <time>2017-07-02T09:44:04Z</time>
      </trkpt>
      <trkpt lat="42.39682" lon="0.1414">
        <ele>695.8</ele>
        <time>2017-07-02T09:44:06Z</time>
      </trkpt>
      <trkpt lat="42.39678" lon="0.14138">
        <ele>694.7</ele>
        <time>2017-07-02T09:44:08Z</time>
      </trkpt>
      <trkpt lat="42.39674" lon="0.14136">
        <ele>693.8</ele>
        <time>2017-07-02T09:44:10Z</time>
      </trkpt>
      <trkpt lat="42.39671" lon="0.14134">
        <ele>693.1</ele>
        <time>2017-07-02T09:44:12Z</time>
      </trkpt>
      <trkpt lat="42.39663" lon="0.14127">
        <ele>691</ele>
        <time>2017-07-02T09:45:10Z</time>
      </trkpt>
      <trkpt lat="42.39659" lon="0.14126">
        <ele>690.3</ele>
        <time>2017-07-02T09:45:12Z</time>
      </trkpt>
      <trkpt lat="42.39655" lon="0.14126">
        <ele>689.5</ele>
        <time>2017-07-02T09:45:14Z</time>
      </trkpt>
      <trkpt lat="42.39651" lon="0.14127">
        <ele>688.6</ele>
        <time>2017-07-02T09:45:16Z</time>
      </trkpt>
      <trkpt lat="42.39646" lon="0.14126">
        <ele>687.7</ele>
        <time>2017-07-02T09:45:18Z</time>
      </trkpt>
      <trkpt lat="42.39641" lon="0.14126">
        <ele>686.9</ele>
        <time>2017-07-02T09:45:20Z</time>
      </trkpt>
      <trkpt lat="42.39636" lon="0.14125">
        <ele>685.9</ele>
        <time>2017-07-02T09:45:22Z</time>
      </trkpt>
      <trkpt lat="42.39633" lon="0.14124">
        <ele>685.4</ele>
        <time>2017-07-02T09:45:23Z</time>
      </trkpt>
      <trkpt lat="42.39631" lon="0.1412">
        <ele>684.9</ele>
        <time>2017-07-02T09:45:25Z</time>
      </trkpt>
      <trkpt lat="42.39627" lon="0.14113">
        <ele>684</ele>
        <time>2017-07-02T09:46:02Z</time>
      </trkpt>
      <trkpt lat="42.39623" lon="0.14111">
        <ele>683.3</ele>
        <time>2017-07-02T09:46:04Z</time>
      </trkpt>
      <trkpt lat="42.39619" lon="0.1411">
        <ele>682.7</ele>
        <time>2017-07-02T09:46:06Z</time>
      </trkpt>
      <trkpt lat="42.39616" lon="0.14109">
        <ele>682.3</ele>
        <time>2017-07-02T09:46:09Z</time>
      </trkpt>
      <trkpt lat="42.39612" lon="0.14108">
        <ele>681.9</ele>
        <time>2017-07-02T09:46:11Z</time>
      </trkpt>
      <trkpt lat="42.39607" lon="0.14107">
        <ele>681.2</ele>
        <time>2017-07-02T09:46:13Z</time>
      </trkpt>
      <trkpt lat="42.39604" lon="0.14105">
        <ele>680.7</ele>
        <time>2017-07-02T09:46:14Z</time>
      </trkpt>
      <trkpt lat="42.396" lon="0.14103">
        <ele>680.2</ele>
        <time>2017-07-02T09:46:15Z</time>
      </trkpt>
      <trkpt lat="42.39596" lon="0.14101">
        <ele>679.6</ele>
        <time>2017-07-02T09:46:16Z</time>
      </trkpt>
      <trkpt lat="42.39593" lon="0.14098">
        <ele>679</ele>
        <time>2017-07-02T09:46:17Z</time>
      </trkpt>
      <trkpt lat="42.39589" lon="0.14095">
        <ele>678.5</ele>
        <time>2017-07-02T09:46:18Z</time>
      </trkpt>
      <trkpt lat="42.39587" lon="0.14093">
        <ele>678</ele>
        <time>2017-07-02T09:46:19Z</time>
      </trkpt>
      <trkpt lat="42.39583" lon="0.14092">
        <ele>677.5</ele>
        <time>2017-07-02T09:46:20Z</time>
      </trkpt>
      <trkpt lat="42.39578" lon="0.1409">
        <ele>676.9</ele>
        <time>2017-07-02T09:46:21Z</time>
      </trkpt>
      <trkpt lat="42.39573" lon="0.1409">
        <ele>676.3</ele>
        <time>2017-07-02T09:46:22Z</time>
      </trkpt>
      <trkpt lat="42.39568" lon="0.14088">
        <ele>675.6</ele>
        <time>2017-07-02T09:46:23Z</time>
      </trkpt>
      <trkpt lat="42.39562" lon="0.14086">
        <ele>675</ele>
        <time>2017-07-02T09:46:24Z</time>
      </trkpt>
      <trkpt lat="42.39557" lon="0.14084">
        <ele>674.6</ele>
        <time>2017-07-02T09:46:25Z</time>
      </trkpt>
      <trkpt lat="42.39553" lon="0.14083">
        <ele>674.6</ele>
        <time>2017-07-02T09:46:26Z</time>
      </trkpt>
      <trkpt lat="42.39548" lon="0.14082">
        <ele>674.9</ele>
        <time>2017-07-02T09:46:28Z</time>
      </trkpt>
      <trkpt lat="42.39544" lon="0.14083">
        <ele>675.7</ele>
        <time>2017-07-02T09:46:30Z</time>
      </trkpt>
      <trkpt lat="42.39541" lon="0.14084">
        <ele>676.4</ele>
        <time>2017-07-02T09:46:32Z</time>
      </trkpt>
      <trkpt lat="42.39538" lon="0.14086">
        <ele>676.8</ele>
        <time>2017-07-02T09:46:35Z</time>
      </trkpt>
      <trkpt lat="42.39534" lon="0.14088">
        <ele>677</ele>
        <time>2017-07-02T09:46:38Z</time>
      </trkpt>
      <trkpt lat="42.39531" lon="0.14086">
        <ele>677.1</ele>
        <time>2017-07-02T09:46:44Z</time>
      </trkpt>
      <trkpt lat="42.39528" lon="0.14084">
        <ele>677.2</ele>
        <time>2017-07-02T09:46:46Z</time>
      </trkpt>
      <trkpt lat="42.39525" lon="0.14082">
        <ele>677.3</ele>
        <time>2017-07-02T09:46:48Z</time>
      </trkpt>
      <trkpt lat="42.39522" lon="0.1408">
        <ele>677.6</ele>
        <time>2017-07-02T09:46:51Z</time>
      </trkpt>
      <trkpt lat="42.39519" lon="0.14078">
        <ele>677.8</ele>
        <time>2017-07-02T09:46:53Z</time>
      </trkpt>
      <trkpt lat="42.39516" lon="0.14076">
        <ele>678</ele>
        <time>2017-07-02T09:46:56Z</time>
      </trkpt>
      <trkpt lat="42.39512" lon="0.14075">
        <ele>678.2</ele>
        <time>2017-07-02T09:46:58Z</time>
      </trkpt>
      <trkpt lat="42.39508" lon="0.14076">
        <ele>678.5</ele>
        <time>2017-07-02T09:47:00Z</time>
      </trkpt>
      <trkpt lat="42.39503" lon="0.14077">
        <ele>679</ele>
        <time>2017-07-02T09:47:02Z</time>
      </trkpt>
      <trkpt lat="42.39498" lon="0.14077">
        <ele>679.2</ele>
        <time>2017-07-02T09:47:04Z</time>
      </trkpt>
      <trkpt lat="42.39493" lon="0.14077">
        <ele>679.5</ele>
        <time>2017-07-02T09:47:06Z</time>
      </trkpt>
      <trkpt lat="42.39491" lon="0.14078">
        <ele>679.7</ele>
        <time>2017-07-02T09:47:07Z</time>
      </trkpt>
      <trkpt lat="42.39488" lon="0.14078">
        <ele>680.1</ele>
        <time>2017-07-02T09:47:08Z</time>
      </trkpt>
      <trkpt lat="42.39483" lon="0.14078">
        <ele>680.6</ele>
        <time>2017-07-02T09:47:10Z</time>
      </trkpt>
      <trkpt lat="42.39479" lon="0.14077">
        <ele>680.9</ele>
        <time>2017-07-02T09:47:12Z</time>
      </trkpt>
      <trkpt lat="42.39475" lon="0.14076">
        <ele>681</ele>
        <time>2017-07-02T09:47:14Z</time>
      </trkpt>
      <trkpt lat="42.39472" lon="0.14075">
        <ele>681.1</ele>
        <time>2017-07-02T09:47:16Z</time>
      </trkpt>
      <trkpt lat="42.39467" lon="0.14073">
        <ele>681.3</ele>
        <time>2017-07-02T09:47:18Z</time>
      </trkpt>
      <trkpt lat="42.39463" lon="0.14071">
        <ele>681.5</ele>
        <time>2017-07-02T09:47:20Z</time>
      </trkpt>
      <trkpt lat="42.39458" lon="0.14069">
        <ele>681.8</ele>
        <time>2017-07-02T09:47:22Z</time>
      </trkpt>
      <trkpt lat="42.39455" lon="0.14069">
        <ele>682.4</ele>
        <time>2017-07-02T09:47:24Z</time>
      </trkpt>
      <trkpt lat="42.39452" lon="0.14069">
        <ele>682.8</ele>
        <time>2017-07-02T09:47:26Z</time>
      </trkpt>
      <trkpt lat="42.39447" lon="0.14068">
        <ele>683.2</ele>
        <time>2017-07-02T09:47:28Z</time>
      </trkpt>
      <trkpt lat="42.39444" lon="0.14068">
        <ele>683.9</ele>
        <time>2017-07-02T09:47:30Z</time>
      </trkpt>
      <trkpt lat="42.3944" lon="0.14067">
        <ele>684.5</ele>
        <time>2017-07-02T09:47:32Z</time>
      </trkpt>
      <trkpt lat="42.39436" lon="0.14067">
        <ele>684.7</ele>
        <time>2017-07-02T09:47:35Z</time>
      </trkpt>
      <trkpt lat="42.39434" lon="0.14066">
        <ele>684.8</ele>
        <time>2017-07-02T09:47:37Z</time>
      </trkpt>
      <trkpt lat="42.39431" lon="0.14065">
        <ele>684.9</ele>
        <time>2017-07-02T09:47:42Z</time>
      </trkpt>
      <trkpt lat="42.39427" lon="0.14066">
        <ele>685.2</ele>
        <time>2017-07-02T09:47:55Z</time>
      </trkpt>
      <trkpt lat="42.39424" lon="0.14065">
        <ele>685.4</ele>
        <time>2017-07-02T09:47:57Z</time>
      </trkpt>
      <trkpt lat="42.39421" lon="0.14063">
        <ele>685.8</ele>
        <time>2017-07-02T09:48:00Z</time>
      </trkpt>
      <trkpt lat="42.39419" lon="0.1406">
        <ele>686.1</ele>
        <time>2017-07-02T09:48:03Z</time>
      </trkpt>
      <trkpt lat="42.39416" lon="0.14058">
        <ele>686.2</ele>
        <time>2017-07-02T09:48:05Z</time>
      </trkpt>
      <trkpt lat="42.39413" lon="0.14056">
        <ele>686.3</ele>
        <time>2017-07-02T09:48:07Z</time>
      </trkpt>
      <trkpt lat="42.39409" lon="0.14054">
        <ele>686.4</ele>
        <time>2017-07-02T09:48:09Z</time>
      </trkpt>
      <trkpt lat="42.39407" lon="0.14053">
        <ele>686.5</ele>
        <time>2017-07-02T09:48:10Z</time>
      </trkpt>
      <trkpt lat="42.39404" lon="0.14052">
        <ele>686.6</ele>
        <time>2017-07-02T09:48:11Z</time>
      </trkpt>
      <trkpt lat="42.39401" lon="0.14051">
        <ele>686.6</ele>
        <time>2017-07-02T09:48:12Z</time>
      </trkpt>
      <trkpt lat="42.39398" lon="0.14051">
        <ele>686.7</ele>
        <time>2017-07-02T09:48:13Z</time>
      </trkpt>
      <trkpt lat="42.39396" lon="0.14052">
        <ele>686.8</ele>
        <time>2017-07-02T09:48:14Z</time>
      </trkpt>
      <trkpt lat="42.39393" lon="0.14054">
        <ele>686.9</ele>
        <time>2017-07-02T09:48:15Z</time>
      </trkpt>
      <trkpt lat="42.3939" lon="0.14056">
        <ele>687</ele>
        <time>2017-07-02T09:48:16Z</time>
      </trkpt>
      <trkpt lat="42.39387" lon="0.14058">
        <ele>687.2</ele>
        <time>2017-07-02T09:48:17Z</time>
      </trkpt>
      <trkpt lat="42.39384" lon="0.1406">
        <ele>687.5</ele>
        <time>2017-07-02T09:48:18Z</time>
      </trkpt>
      <trkpt lat="42.3938" lon="0.14063">
        <ele>688.1</ele>
        <time>2017-07-02T09:48:19Z</time>
      </trkpt>
      <trkpt lat="42.39377" lon="0.14066">
        <ele>688.5</ele>
        <time>2017-07-02T09:48:20Z</time>
      </trkpt>
      <trkpt lat="42.39374" lon="0.14069">
        <ele>688.8</ele>
        <time>2017-07-02T09:48:21Z</time>
      </trkpt>
      <trkpt lat="42.39372" lon="0.14073">
        <ele>689.3</ele>
        <time>2017-07-02T09:48:22Z</time>
      </trkpt>
      <trkpt lat="42.39369" lon="0.14076">
        <ele>689.9</ele>
        <time>2017-07-02T09:48:23Z</time>
      </trkpt>
      <trkpt lat="42.39367" lon="0.14079">
        <ele>690.2</ele>
        <time>2017-07-02T09:48:24Z</time>
      </trkpt>
      <trkpt lat="42.39364" lon="0.14081">
        <ele>690.3</ele>
        <time>2017-07-02T09:48:25Z</time>
      </trkpt>
      <trkpt lat="42.39362" lon="0.14083">
        <ele>690.5</ele>
        <time>2017-07-02T09:48:26Z</time>
      </trkpt>
      <trkpt lat="42.39359" lon="0.14085">
        <ele>690.6</ele>
        <time>2017-07-02T09:48:27Z</time>
      </trkpt>
      <trkpt lat="42.39355" lon="0.14088">
        <ele>691.1</ele>
        <time>2017-07-02T09:48:29Z</time>
      </trkpt>
      <trkpt lat="42.39352" lon="0.14091">
        <ele>691.6</ele>
        <time>2017-07-02T09:48:31Z</time>
      </trkpt>
      <trkpt lat="42.39349" lon="0.14095">
        <ele>691.9</ele>
        <time>2017-07-02T09:48:33Z</time>
      </trkpt>
      <trkpt lat="42.39346" lon="0.14098">
        <ele>692</ele>
        <time>2017-07-02T09:48:35Z</time>
      </trkpt>
      <trkpt lat="42.39344" lon="0.14102">
        <ele>692.2</ele>
        <time>2017-07-02T09:48:37Z</time>
      </trkpt>
      <trkpt lat="42.39342" lon="0.14106">
        <ele>692.3</ele>
        <time>2017-07-02T09:48:39Z</time>
      </trkpt>
      <trkpt lat="42.39338" lon="0.14109">
        <ele>692.5</ele>
        <time>2017-07-02T09:48:41Z</time>
      </trkpt>
      <trkpt lat="42.39334" lon="0.14112">
        <ele>692.6</ele>
        <time>2017-07-02T09:48:43Z</time>
      </trkpt>
      <trkpt lat="42.3933" lon="0.14114">
        <ele>692.8</ele>
        <time>2017-07-02T09:48:45Z</time>
      </trkpt>
      <trkpt lat="42.39327" lon="0.14116">
        <ele>693</ele>
        <time>2017-07-02T09:48:47Z</time>
      </trkpt>
      <trkpt lat="42.39324" lon="0.14119">
        <ele>693.5</ele>
        <time>2017-07-02T09:48:50Z</time>
      </trkpt>
      <trkpt lat="42.39322" lon="0.14122">
        <ele>693.7</ele>
        <time>2017-07-02T09:48:52Z</time>
      </trkpt>
      <trkpt lat="42.39319" lon="0.14125">
        <ele>694</ele>
        <time>2017-07-02T09:48:54Z</time>
      </trkpt>
      <trkpt lat="42.39316" lon="0.14129">
        <ele>694.1</ele>
        <time>2017-07-02T09:48:56Z</time>
      </trkpt>
      <trkpt lat="42.39312" lon="0.14132">
        <ele>694.3</ele>
        <time>2017-07-02T09:48:58Z</time>
      </trkpt>
      <trkpt lat="42.39309" lon="0.14135">
        <ele>694.6</ele>
        <time>2017-07-02T09:49:00Z</time>
      </trkpt>
      <trkpt lat="42.39305" lon="0.14138">
        <ele>694.9</ele>
        <time>2017-07-02T09:49:02Z</time>
      </trkpt>
      <trkpt lat="42.39301" lon="0.14141">
        <ele>695.5</ele>
        <time>2017-07-02T09:49:04Z</time>
      </trkpt>
      <trkpt lat="42.39297" lon="0.14144">
        <ele>695.8</ele>
        <time>2017-07-02T09:49:06Z</time>
      </trkpt>
      <trkpt lat="42.39294" lon="0.14147">
        <ele>696.1</ele>
        <time>2017-07-02T09:49:08Z</time>
      </trkpt>
      <trkpt lat="42.3929" lon="0.1415">
        <ele>696.8</ele>
        <time>2017-07-02T09:49:10Z</time>
      </trkpt>
      <trkpt lat="42.39286" lon="0.14153">
        <ele>697.5</ele>
        <time>2017-07-02T09:49:12Z</time>
      </trkpt>
      <trkpt lat="42.39283" lon="0.14156">
        <ele>697.7</ele>
        <time>2017-07-02T09:49:14Z</time>
      </trkpt>
      <trkpt lat="42.39279" lon="0.14157">
        <ele>697.9</ele>
        <time>2017-07-02T09:49:16Z</time>
      </trkpt>
      <trkpt lat="42.39276" lon="0.14159">
        <ele>698.3</ele>
        <time>2017-07-02T09:49:18Z</time>
      </trkpt>
      <trkpt lat="42.39272" lon="0.14161">
        <ele>698.7</ele>
        <time>2017-07-02T09:49:20Z</time>
      </trkpt>
      <trkpt lat="42.39269" lon="0.14162">
        <ele>698.8</ele>
        <time>2017-07-02T09:49:22Z</time>
      </trkpt>
      <trkpt lat="42.39264" lon="0.14165">
        <ele>699</ele>
        <time>2017-07-02T09:49:24Z</time>
      </trkpt>
      <trkpt lat="42.3926" lon="0.14167">
        <ele>699.1</ele>
        <time>2017-07-02T09:49:26Z</time>
      </trkpt>
      <trkpt lat="42.39256" lon="0.1417">
        <ele>699.2</ele>
        <time>2017-07-02T09:49:28Z</time>
      </trkpt>
      <trkpt lat="42.39253" lon="0.14174">
        <ele>699.3</ele>
        <time>2017-07-02T09:49:30Z</time>
      </trkpt>
      <trkpt lat="42.39249" lon="0.14178">
        <ele>699.4</ele>
        <time>2017-07-02T09:49:32Z</time>
      </trkpt>
      <trkpt lat="42.39246" lon="0.14182">
        <ele>699.5</ele>
        <time>2017-07-02T09:49:34Z</time>
      </trkpt>
      <trkpt lat="42.39244" lon="0.14185">
        <ele>699.6</ele>
        <time>2017-07-02T09:49:36Z</time>
      </trkpt>
      <trkpt lat="42.39241" lon="0.14187">
        <ele>699.6</ele>
        <time>2017-07-02T09:49:38Z</time>
      </trkpt>
      <trkpt lat="42.39239" lon="0.1419">
        <ele>699.7</ele>
        <time>2017-07-02T09:49:40Z</time>
      </trkpt>
      <trkpt lat="42.39236" lon="0.14193">
        <ele>700.1</ele>
        <time>2017-07-02T09:49:42Z</time>
      </trkpt>
      <trkpt lat="42.39232" lon="0.14196">
        <ele>700.5</ele>
        <time>2017-07-02T09:49:44Z</time>
      </trkpt>
      <trkpt lat="42.39229" lon="0.14201">
        <ele>700.8</ele>
        <time>2017-07-02T09:49:46Z</time>
      </trkpt>
      <trkpt lat="42.39225" lon="0.14205">
        <ele>700.9</ele>
        <time>2017-07-02T09:49:48Z</time>
      </trkpt>
      <trkpt lat="42.39223" lon="0.14208">
        <ele>701</ele>
        <time>2017-07-02T09:49:49Z</time>
      </trkpt>
      <trkpt lat="42.3922" lon="0.14213">
        <ele>701</ele>
        <time>2017-07-02T09:49:51Z</time>
      </trkpt>
      <trkpt lat="42.39216" lon="0.14217">
        <ele>701.1</ele>
        <time>2017-07-02T09:49:53Z</time>
      </trkpt>
      <trkpt lat="42.39214" lon="0.14219">
        <ele>701.2</ele>
        <time>2017-07-02T09:49:54Z</time>
      </trkpt>
      <trkpt lat="42.39209" lon="0.14222">
        <ele>701.3</ele>
        <time>2017-07-02T09:49:56Z</time>
      </trkpt>
      <trkpt lat="42.39205" lon="0.14224">
        <ele>701.4</ele>
        <time>2017-07-02T09:49:58Z</time>
      </trkpt>
      <trkpt lat="42.392" lon="0.14225">
        <ele>701.6</ele>
        <time>2017-07-02T09:50:00Z</time>
      </trkpt>
      <trkpt lat="42.39196" lon="0.14227">
        <ele>701.9</ele>
        <time>2017-07-02T09:50:02Z</time>
      </trkpt>
      <trkpt lat="42.39191" lon="0.14228">
        <ele>702.4</ele>
        <time>2017-07-02T09:50:04Z</time>
      </trkpt>
      <trkpt lat="42.39186" lon="0.1423">
        <ele>702.8</ele>
        <time>2017-07-02T09:50:06Z</time>
      </trkpt>
      <trkpt lat="42.39183" lon="0.14232">
        <ele>703</ele>
        <time>2017-07-02T09:50:08Z</time>
      </trkpt>
      <trkpt lat="42.3918" lon="0.14232">
        <ele>703.3</ele>
        <time>2017-07-02T09:50:10Z</time>
      </trkpt>
      <trkpt lat="42.39177" lon="0.14233">
        <ele>703.8</ele>
        <time>2017-07-02T09:50:14Z</time>
      </trkpt>
      <trkpt lat="42.39174" lon="0.14233">
        <ele>704.2</ele>
        <time>2017-07-02T09:50:19Z</time>
      </trkpt>
      <trkpt lat="42.39169" lon="0.1424">
        <ele>705</ele>
        <time>2017-07-02T09:51:17Z</time>
      </trkpt>
      <trkpt lat="42.39167" lon="0.14243">
        <ele>705.3</ele>
        <time>2017-07-02T09:51:19Z</time>
      </trkpt>
      <trkpt lat="42.39166" lon="0.14247">
        <ele>705.6</ele>
        <time>2017-07-02T09:51:21Z</time>
      </trkpt>
      <trkpt lat="42.39166" lon="0.14251">
        <ele>706</ele>
        <time>2017-07-02T09:51:24Z</time>
      </trkpt>
      <trkpt lat="42.3917" lon="0.14252">
        <ele>706.3</ele>
        <time>2017-07-02T09:51:27Z</time>
      </trkpt>
      <trkpt lat="42.39174" lon="0.1425">
        <ele>706.4</ele>
        <time>2017-07-02T09:51:29Z</time>
      </trkpt>
      <trkpt lat="42.39178" lon="0.1425">
        <ele>706.5</ele>
        <time>2017-07-02T09:51:31Z</time>
      </trkpt>
      <trkpt lat="42.39181" lon="0.14251">
        <ele>706.7</ele>
        <time>2017-07-02T09:51:33Z</time>
      </trkpt>
      <trkpt lat="42.39183" lon="0.14254">
        <ele>706.8</ele>
        <time>2017-07-02T09:51:35Z</time>
      </trkpt>
      <trkpt lat="42.39184" lon="0.14259">
        <ele>707.1</ele>
        <time>2017-07-02T09:51:37Z</time>
      </trkpt>
      <trkpt lat="42.39183" lon="0.14264">
        <ele>707.5</ele>
        <time>2017-07-02T09:51:39Z</time>
      </trkpt>
      <trkpt lat="42.39181" lon="0.14268">
        <ele>707.9</ele>
        <time>2017-07-02T09:51:40Z</time>
      </trkpt>
      <trkpt lat="42.39179" lon="0.14271">
        <ele>708.2</ele>
        <time>2017-07-02T09:51:42Z</time>
      </trkpt>
      <trkpt lat="42.39177" lon="0.14276">
        <ele>708.5</ele>
        <time>2017-07-02T09:51:45Z</time>
      </trkpt>
      <trkpt lat="42.39174" lon="0.14282">
        <ele>708.9</ele>
        <time>2017-07-02T09:51:47Z</time>
      </trkpt>
      <trkpt lat="42.39173" lon="0.14286">
        <ele>709.4</ele>
        <time>2017-07-02T09:51:49Z</time>
      </trkpt>
      <trkpt lat="42.3917" lon="0.14291">
        <ele>710.3</ele>
        <time>2017-07-02T09:51:51Z</time>
      </trkpt>
      <trkpt lat="42.39169" lon="0.14295">
        <ele>710.8</ele>
        <time>2017-07-02T09:51:53Z</time>
      </trkpt>
      <trkpt lat="42.39168" lon="0.143">
        <ele>711.7</ele>
        <time>2017-07-02T09:51:55Z</time>
      </trkpt>
      <trkpt lat="42.39166" lon="0.14305">
        <ele>712.6</ele>
        <time>2017-07-02T09:51:58Z</time>
      </trkpt>
      <trkpt lat="42.39166" lon="0.1431">
        <ele>713.6</ele>
        <time>2017-07-02T09:52:01Z</time>
      </trkpt>
      <trkpt lat="42.39167" lon="0.14315">
        <ele>714.4</ele>
        <time>2017-07-02T09:52:04Z</time>
      </trkpt>
      <trkpt lat="42.39167" lon="0.14319">
        <ele>715.1</ele>
        <time>2017-07-02T09:52:06Z</time>
      </trkpt>
      <trkpt lat="42.39167" lon="0.14323">
        <ele>715.9</ele>
        <time>2017-07-02T09:52:08Z</time>
      </trkpt>
      <trkpt lat="42.39168" lon="0.14328">
        <ele>718.1</ele>
        <time>2017-07-02T09:52:10Z</time>
      </trkpt>
      <trkpt lat="42.3917" lon="0.1433">
        <ele>718.2</ele>
        <time>2017-07-02T09:52:13Z</time>
      </trkpt>
      <trkpt lat="42.39173" lon="0.14332">
        <ele>718.4</ele>
        <time>2017-07-02T09:52:17Z</time>
      </trkpt>
      <trkpt lat="42.39176" lon="0.1433">
        <ele>718.5</ele>
        <time>2017-07-02T09:52:23Z</time>
      </trkpt>
      <trkpt lat="42.3918" lon="0.1433">
        <ele>718.9</ele>
        <time>2017-07-02T09:52:26Z</time>
      </trkpt>
      <trkpt lat="42.39183" lon="0.1433">
        <ele>719.3</ele>
        <time>2017-07-02T09:52:28Z</time>
      </trkpt>
      <trkpt lat="42.39186" lon="0.14332">
        <ele>719.9</ele>
        <time>2017-07-02T09:52:30Z</time>
      </trkpt>
      <trkpt lat="42.3919" lon="0.14332">
        <ele>720.4</ele>
        <time>2017-07-02T09:52:33Z</time>
      </trkpt>
      <trkpt lat="42.39193" lon="0.14333">
        <ele>720.8</ele>
        <time>2017-07-02T09:52:37Z</time>
      </trkpt>
      <trkpt lat="42.39196" lon="0.14336">
        <ele>721.5</ele>
        <time>2017-07-02T09:52:41Z</time>
      </trkpt>
      <trkpt lat="42.39199" lon="0.14338">
        <ele>722</ele>
        <time>2017-07-02T09:52:46Z</time>
      </trkpt>
      <trkpt lat="42.39202" lon="0.14342">
        <ele>722.3</ele>
        <time>2017-07-02T09:52:49Z</time>
      </trkpt>
      <trkpt lat="42.39204" lon="0.14344">
        <ele>722.5</ele>
        <time>2017-07-02T09:52:51Z</time>
      </trkpt>
      <trkpt lat="42.39206" lon="0.14348">
        <ele>723.3</ele>
        <time>2017-07-02T09:52:53Z</time>
      </trkpt>
      <trkpt lat="42.39207" lon="0.14352">
        <ele>723.8</ele>
        <time>2017-07-02T09:52:55Z</time>
      </trkpt>
      <trkpt lat="42.39205" lon="0.14356">
        <ele>724.2</ele>
        <time>2017-07-02T09:52:58Z</time>
      </trkpt>
      <trkpt lat="42.39204" lon="0.1436">
        <ele>724.4</ele>
        <time>2017-07-02T09:53:01Z</time>
      </trkpt>
      <trkpt lat="42.39202" lon="0.14363">
        <ele>724.5</ele>
        <time>2017-07-02T09:53:04Z</time>
      </trkpt>
      <trkpt lat="42.39201" lon="0.14367">
        <ele>725</ele>
        <time>2017-07-02T09:53:07Z</time>
      </trkpt>
      <trkpt lat="42.39201" lon="0.14371">
        <ele>725.9</ele>
        <time>2017-07-02T09:53:11Z</time>
      </trkpt>
      <trkpt lat="42.39197" lon="0.14374">
        <ele>728.1</ele>
        <time>2017-07-02T09:53:14Z</time>
      </trkpt>
      <trkpt lat="42.39194" lon="0.14376">
        <ele>729.9</ele>
        <time>2017-07-02T09:53:16Z</time>
      </trkpt>
      <trkpt lat="42.39192" lon="0.14379">
        <ele>730.1</ele>
        <time>2017-07-02T09:53:18Z</time>
      </trkpt>
      <trkpt lat="42.39189" lon="0.14382">
        <ele>730.5</ele>
        <time>2017-07-02T09:53:21Z</time>
      </trkpt>
      <trkpt lat="42.39187" lon="0.14386">
        <ele>731.1</ele>
        <time>2017-07-02T09:53:23Z</time>
      </trkpt>
      <trkpt lat="42.39186" lon="0.14388">
        <ele>731.8</ele>
        <time>2017-07-02T09:53:25Z</time>
      </trkpt>
      <trkpt lat="42.39183" lon="0.14391">
        <ele>732.1</ele>
        <time>2017-07-02T09:53:28Z</time>
      </trkpt>
      <trkpt lat="42.39181" lon="0.14395">
        <ele>732.7</ele>
        <time>2017-07-02T09:53:31Z</time>
      </trkpt>
      <trkpt lat="42.39179" lon="0.14397">
        <ele>733.4</ele>
        <time>2017-07-02T09:53:34Z</time>
      </trkpt>
      <trkpt lat="42.39176" lon="0.144">
        <ele>733.8</ele>
        <time>2017-07-02T09:53:37Z</time>
      </trkpt>
      <trkpt lat="42.39175" lon="0.14404">
        <ele>734.2</ele>
        <time>2017-07-02T09:53:40Z</time>
      </trkpt>
      <trkpt lat="42.39178" lon="0.14407">
        <ele>735</ele>
        <time>2017-07-02T09:53:53Z</time>
      </trkpt>
      <trkpt lat="42.39181" lon="0.14407">
        <ele>735.4</ele>
        <time>2017-07-02T09:53:57Z</time>
      </trkpt>
      <trkpt lat="42.39183" lon="0.1441">
        <ele>735.7</ele>
        <time>2017-07-02T09:53:59Z</time>
      </trkpt>
      <trkpt lat="42.39184" lon="0.14414">
        <ele>736.3</ele>
        <time>2017-07-02T09:54:01Z</time>
      </trkpt>
      <trkpt lat="42.39185" lon="0.14418">
        <ele>737.2</ele>
        <time>2017-07-02T09:54:04Z</time>
      </trkpt>
      <trkpt lat="42.39187" lon="0.14421">
        <ele>737.9</ele>
        <time>2017-07-02T09:54:06Z</time>
      </trkpt>
      <trkpt lat="42.39188" lon="0.14425">
        <ele>738.6</ele>
        <time>2017-07-02T09:54:09Z</time>
      </trkpt>
      <trkpt lat="42.3919" lon="0.14429">
        <ele>739</ele>
        <time>2017-07-02T09:54:13Z</time>
      </trkpt>
      <trkpt lat="42.39192" lon="0.14432">
        <ele>739.2</ele>
        <time>2017-07-02T09:54:15Z</time>
      </trkpt>
      <trkpt lat="42.39195" lon="0.14434">
        <ele>739.5</ele>
        <time>2017-07-02T09:54:17Z</time>
      </trkpt>
      <trkpt lat="42.39198" lon="0.14437">
        <ele>740</ele>
        <time>2017-07-02T09:54:20Z</time>
      </trkpt>
      <trkpt lat="42.39201" lon="0.14438">
        <ele>740.7</ele>
        <time>2017-07-02T09:54:23Z</time>
      </trkpt>
      <trkpt lat="42.39204" lon="0.14441">
        <ele>741</ele>
        <time>2017-07-02T09:54:26Z</time>
      </trkpt>
      <trkpt lat="42.39208" lon="0.14442">
        <ele>741.6</ele>
        <time>2017-07-02T09:54:29Z</time>
      </trkpt>
      <trkpt lat="42.3921" lon="0.14444">
        <ele>742.3</ele>
        <time>2017-07-02T09:54:31Z</time>
      </trkpt>
      <trkpt lat="42.39212" lon="0.14447">
        <ele>742.5</ele>
        <time>2017-07-02T09:54:33Z</time>
      </trkpt>
      <trkpt lat="42.39216" lon="0.14449">
        <ele>742.5</ele>
        <time>2017-07-02T09:54:36Z</time>
      </trkpt>
      <trkpt lat="42.39219" lon="0.1445">
        <ele>742.5</ele>
        <time>2017-07-02T09:54:44Z</time>
      </trkpt>
      <trkpt lat="42.39222" lon="0.1445">
        <ele>742.5</ele>
        <time>2017-07-02T09:54:55Z</time>
      </trkpt>
      <trkpt lat="42.39225" lon="0.14448">
        <ele>742.5</ele>
        <time>2017-07-02T09:54:58Z</time>
      </trkpt>
      <trkpt lat="42.39228" lon="0.14449">
        <ele>742.5</ele>
        <time>2017-07-02T09:55:01Z</time>
      </trkpt>
      <trkpt lat="42.39231" lon="0.14452">
        <ele>742.5</ele>
        <time>2017-07-02T09:55:04Z</time>
      </trkpt>
      <trkpt lat="42.39234" lon="0.14454">
        <ele>742.6</ele>
        <time>2017-07-02T09:55:06Z</time>
      </trkpt>
      <trkpt lat="42.39237" lon="0.14454">
        <ele>742.6</ele>
        <time>2017-07-02T09:55:08Z</time>
      </trkpt>
      <trkpt lat="42.39241" lon="0.14454">
        <ele>742.7</ele>
        <time>2017-07-02T09:55:14Z</time>
      </trkpt>
      <trkpt lat="42.39244" lon="0.14455">
        <ele>742.9</ele>
        <time>2017-07-02T09:55:17Z</time>
      </trkpt>
      <trkpt lat="42.39247" lon="0.14455">
        <ele>743.2</ele>
        <time>2017-07-02T09:55:21Z</time>
      </trkpt>
      <trkpt lat="42.39251" lon="0.14455">
        <ele>743.7</ele>
        <time>2017-07-02T09:55:23Z</time>
      </trkpt>
      <trkpt lat="42.39254" lon="0.14455">
        <ele>744.2</ele>
        <time>2017-07-02T09:55:25Z</time>
      </trkpt>
      <trkpt lat="42.39257" lon="0.14455">
        <ele>744.6</ele>
        <time>2017-07-02T09:55:27Z</time>
      </trkpt>
      <trkpt lat="42.39261" lon="0.14455">
        <ele>745</ele>
        <time>2017-07-02T09:55:29Z</time>
      </trkpt>
      <trkpt lat="42.39265" lon="0.14456">
        <ele>745.8</ele>
        <time>2017-07-02T09:55:31Z</time>
      </trkpt>
      <trkpt lat="42.39267" lon="0.14458">
        <ele>746.2</ele>
        <time>2017-07-02T09:55:32Z</time>
      </trkpt>
      <trkpt lat="42.39269" lon="0.14461">
        <ele>746.6</ele>
        <time>2017-07-02T09:55:33Z</time>
      </trkpt>
      <trkpt lat="42.39272" lon="0.14463">
        <ele>747.2</ele>
        <time>2017-07-02T09:55:34Z</time>
      </trkpt>
      <trkpt lat="42.39275" lon="0.14464">
        <ele>747.5</ele>
        <time>2017-07-02T09:55:35Z</time>
      </trkpt>
      <trkpt lat="42.39277" lon="0.14465">
        <ele>747.6</ele>
        <time>2017-07-02T09:55:36Z</time>
      </trkpt>
      <trkpt lat="42.39281" lon="0.14469">
        <ele>747.8</ele>
        <time>2017-07-02T09:55:38Z</time>
      </trkpt>
      <trkpt lat="42.39284" lon="0.14473">
        <ele>747.8</ele>
        <time>2017-07-02T09:55:40Z</time>
      </trkpt>
      <trkpt lat="42.39286" lon="0.14475">
        <ele>747.9</ele>
        <time>2017-07-02T09:55:42Z</time>
      </trkpt>
      <trkpt lat="42.39289" lon="0.14478">
        <ele>747.9</ele>
        <time>2017-07-02T09:55:44Z</time>
      </trkpt>
      <trkpt lat="42.39292" lon="0.14479">
        <ele>747.9</ele>
        <time>2017-07-02T09:55:46Z</time>
      </trkpt>
      <trkpt lat="42.39295" lon="0.14481">
        <ele>747.9</ele>
        <time>2017-07-02T09:55:48Z</time>
      </trkpt>
      <trkpt lat="42.39298" lon="0.14484">
        <ele>747.9</ele>
        <time>2017-07-02T09:55:50Z</time>
      </trkpt>
      <trkpt lat="42.393" lon="0.14489">
        <ele>748</ele>
        <time>2017-07-02T09:55:52Z</time>
      </trkpt>
      <trkpt lat="42.39302" lon="0.14494">
        <ele>748.1</ele>
        <time>2017-07-02T09:55:54Z</time>
      </trkpt>
      <trkpt lat="42.39302" lon="0.14499">
        <ele>748.4</ele>
        <time>2017-07-02T09:55:56Z</time>
      </trkpt>
      <trkpt lat="42.393" lon="0.14503">
        <ele>748.8</ele>
        <time>2017-07-02T09:55:58Z</time>
      </trkpt>
      <trkpt lat="42.39296" lon="0.14505">
        <ele>749.6</ele>
        <time>2017-07-02T09:56:00Z</time>
      </trkpt>
      <trkpt lat="42.39293" lon="0.14505">
        <ele>749.8</ele>
        <time>2017-07-02T09:56:02Z</time>
      </trkpt>
      <trkpt lat="42.39289" lon="0.14505">
        <ele>750.1</ele>
        <time>2017-07-02T09:56:05Z</time>
      </trkpt>
      <trkpt lat="42.3929" lon="0.14509">
        <ele>750.6</ele>
        <time>2017-07-02T09:56:44Z</time>
      </trkpt>
      <trkpt lat="42.39292" lon="0.14507">
        <ele>751</ele>
        <time>2017-07-02T09:59:08Z</time>
      </trkpt>
      <trkpt lat="42.39289" lon="0.14508">
        <ele>751.3</ele>
        <time>2017-07-02T09:59:16Z</time>
      </trkpt>
      <trkpt lat="42.39286" lon="0.14507">
        <ele>751.6</ele>
        <time>2017-07-02T09:59:21Z</time>
      </trkpt>
      <trkpt lat="42.39283" lon="0.14508">
        <ele>752</ele>
        <time>2017-07-02T09:59:24Z</time>
      </trkpt>
      <trkpt lat="42.3928" lon="0.14509">
        <ele>752.4</ele>
        <time>2017-07-02T09:59:26Z</time>
      </trkpt>
      <trkpt lat="42.39277" lon="0.14509">
        <ele>752.8</ele>
        <time>2017-07-02T09:59:28Z</time>
      </trkpt>
      <trkpt lat="42.39274" lon="0.14508">
        <ele>752.9</ele>
        <time>2017-07-02T09:59:30Z</time>
      </trkpt>
      <trkpt lat="42.3927" lon="0.14506">
        <ele>753.3</ele>
        <time>2017-07-02T09:59:32Z</time>
      </trkpt>
      <trkpt lat="42.39265" lon="0.14507">
        <ele>753.5</ele>
        <time>2017-07-02T09:59:34Z</time>
      </trkpt>
      <trkpt lat="42.39262" lon="0.14504">
        <ele>753.6</ele>
        <time>2017-07-02T09:59:37Z</time>
      </trkpt>
      <trkpt lat="42.3926" lon="0.14501">
        <ele>753.9</ele>
        <time>2017-07-02T09:59:40Z</time>
      </trkpt>
      <trkpt lat="42.39258" lon="0.14501">
        <ele>754.3</ele>
        <time>2017-07-02T09:59:43Z</time>
      </trkpt>
      <trkpt lat="42.39255" lon="0.14504">
        <ele>754.6</ele>
        <time>2017-07-02T09:59:46Z</time>
      </trkpt>
      <trkpt lat="42.39251" lon="0.14506">
        <ele>755</ele>
        <time>2017-07-02T09:59:49Z</time>
      </trkpt>
      <trkpt lat="42.39249" lon="0.14509">
        <ele>755.2</ele>
        <time>2017-07-02T09:59:51Z</time>
      </trkpt>
      <trkpt lat="42.39247" lon="0.14511">
        <ele>755.6</ele>
        <time>2017-07-02T09:59:53Z</time>
      </trkpt>
      <trkpt lat="42.39244" lon="0.14514">
        <ele>756.1</ele>
        <time>2017-07-02T09:59:55Z</time>
      </trkpt>
      <trkpt lat="42.39242" lon="0.14516">
        <ele>756.5</ele>
        <time>2017-07-02T09:59:57Z</time>
      </trkpt>
      <trkpt lat="42.39239" lon="0.14519">
        <ele>756.9</ele>
        <time>2017-07-02T09:59:59Z</time>
      </trkpt>
      <trkpt lat="42.39237" lon="0.14522">
        <ele>757.1</ele>
        <time>2017-07-02T10:00:01Z</time>
      </trkpt>
      <trkpt lat="42.39233" lon="0.14522">
        <ele>757.4</ele>
        <time>2017-07-02T10:00:03Z</time>
      </trkpt>
      <trkpt lat="42.39229" lon="0.14523">
        <ele>757.9</ele>
        <time>2017-07-02T10:00:05Z</time>
      </trkpt>
      <trkpt lat="42.39226" lon="0.14525">
        <ele>758.6</ele>
        <time>2017-07-02T10:00:07Z</time>
      </trkpt>
      <trkpt lat="42.39224" lon="0.14529">
        <ele>759.1</ele>
        <time>2017-07-02T10:00:09Z</time>
      </trkpt>
      <trkpt lat="42.3922" lon="0.14532">
        <ele>760</ele>
        <time>2017-07-02T10:00:11Z</time>
      </trkpt>
      <trkpt lat="42.39217" lon="0.14534">
        <ele>760.4</ele>
        <time>2017-07-02T10:00:13Z</time>
      </trkpt>
      <trkpt lat="42.39214" lon="0.14537">
        <ele>760.9</ele>
        <time>2017-07-02T10:00:15Z</time>
      </trkpt>
      <trkpt lat="42.39211" lon="0.1454">
        <ele>761.1</ele>
        <time>2017-07-02T10:00:17Z</time>
      </trkpt>
      <trkpt lat="42.39209" lon="0.14543">
        <ele>761.3</ele>
        <time>2017-07-02T10:00:19Z</time>
      </trkpt>
      <trkpt lat="42.39206" lon="0.14547">
        <ele>761.8</ele>
        <time>2017-07-02T10:00:22Z</time>
      </trkpt>
      <trkpt lat="42.39203" lon="0.1455">
        <ele>762.3</ele>
        <time>2017-07-02T10:00:24Z</time>
      </trkpt>
      <trkpt lat="42.392" lon="0.14552">
        <ele>762.5</ele>
        <time>2017-07-02T10:00:26Z</time>
      </trkpt>
      <trkpt lat="42.39197" lon="0.14554">
        <ele>762.8</ele>
        <time>2017-07-02T10:00:28Z</time>
      </trkpt>
      <trkpt lat="42.39194" lon="0.14557">
        <ele>763.1</ele>
        <time>2017-07-02T10:00:30Z</time>
      </trkpt>
      <trkpt lat="42.39192" lon="0.14561">
        <ele>763.5</ele>
        <time>2017-07-02T10:00:32Z</time>
      </trkpt>
      <trkpt lat="42.39191" lon="0.14566">
        <ele>763.7</ele>
        <time>2017-07-02T10:00:34Z</time>
      </trkpt>
      <trkpt lat="42.39189" lon="0.14571">
        <ele>763.6</ele>
        <time>2017-07-02T10:00:36Z</time>
      </trkpt>
      <trkpt lat="42.39188" lon="0.14575">
        <ele>763.6</ele>
        <time>2017-07-02T10:00:38Z</time>
      </trkpt>
      <trkpt lat="42.39187" lon="0.14579">
        <ele>763.6</ele>
        <time>2017-07-02T10:00:41Z</time>
      </trkpt>
      <trkpt lat="42.39184" lon="0.14582">
        <ele>763.4</ele>
        <time>2017-07-02T10:00:44Z</time>
      </trkpt>
      <trkpt lat="42.39182" lon="0.14585">
        <ele>763.3</ele>
        <time>2017-07-02T10:00:46Z</time>
      </trkpt>
      <trkpt lat="42.3918" lon="0.14589">
        <ele>763</ele>
        <time>2017-07-02T10:00:49Z</time>
      </trkpt>
      <trkpt lat="42.39177" lon="0.14592">
        <ele>762.6</ele>
        <time>2017-07-02T10:00:51Z</time>
      </trkpt>
      <trkpt lat="42.39175" lon="0.14596">
        <ele>761.7</ele>
        <time>2017-07-02T10:00:53Z</time>
      </trkpt>
      <trkpt lat="42.39172" lon="0.14599">
        <ele>760.8</ele>
        <time>2017-07-02T10:00:55Z</time>
      </trkpt>
      <trkpt lat="42.39169" lon="0.14602">
        <ele>760.1</ele>
        <time>2017-07-02T10:00:58Z</time>
      </trkpt>
      <trkpt lat="42.39166" lon="0.14606">
        <ele>759.8</ele>
        <time>2017-07-02T10:01:00Z</time>
      </trkpt>
      <trkpt lat="42.39164" lon="0.14608">
        <ele>759.6</ele>
        <time>2017-07-02T10:01:02Z</time>
      </trkpt>
      <trkpt lat="42.39161" lon="0.1461">
        <ele>759.5</ele>
        <time>2017-07-02T10:01:04Z</time>
      </trkpt>
      <trkpt lat="42.39159" lon="0.14612">
        <ele>759.4</ele>
        <time>2017-07-02T10:01:06Z</time>
      </trkpt>
      <trkpt lat="42.39156" lon="0.14616">
        <ele>759.3</ele>
        <time>2017-07-02T10:01:09Z</time>
      </trkpt>
      <trkpt lat="42.39155" lon="0.14619">
        <ele>759.3</ele>
        <time>2017-07-02T10:01:12Z</time>
      </trkpt>
      <trkpt lat="42.39152" lon="0.14622">
        <ele>759.2</ele>
        <time>2017-07-02T10:01:15Z</time>
      </trkpt>
      <trkpt lat="42.39148" lon="0.14624">
        <ele>759.2</ele>
        <time>2017-07-02T10:01:17Z</time>
      </trkpt>
      <trkpt lat="42.39144" lon="0.14625">
        <ele>759.2</ele>
        <time>2017-07-02T10:01:19Z</time>
      </trkpt>
      <trkpt lat="42.39139" lon="0.14624">
        <ele>759.2</ele>
        <time>2017-07-02T10:01:21Z</time>
      </trkpt>
      <trkpt lat="42.39134" lon="0.14622">
        <ele>759.1</ele>
        <time>2017-07-02T10:01:23Z</time>
      </trkpt>
      <trkpt lat="42.39129" lon="0.14622">
        <ele>759.1</ele>
        <time>2017-07-02T10:01:25Z</time>
      </trkpt>
      <trkpt lat="42.39127" lon="0.14625">
        <ele>759.2</ele>
        <time>2017-07-02T10:01:28Z</time>
      </trkpt>
      <trkpt lat="42.39128" lon="0.14629">
        <ele>759.2</ele>
        <time>2017-07-02T10:01:32Z</time>
      </trkpt>
      <trkpt lat="42.39126" lon="0.14633">
        <ele>759.2</ele>
        <time>2017-07-02T10:01:35Z</time>
      </trkpt>
      <trkpt lat="42.39122" lon="0.14635">
        <ele>759.3</ele>
        <time>2017-07-02T10:01:37Z</time>
      </trkpt>
      <trkpt lat="42.39117" lon="0.14637">
        <ele>759.4</ele>
        <time>2017-07-02T10:01:39Z</time>
      </trkpt>
      <trkpt lat="42.39114" lon="0.1464">
        <ele>759.4</ele>
        <time>2017-07-02T10:01:41Z</time>
      </trkpt>
      <trkpt lat="42.39111" lon="0.14643">
        <ele>759.8</ele>
        <time>2017-07-02T10:01:45Z</time>
      </trkpt>
      <trkpt lat="42.39108" lon="0.14644">
        <ele>760.3</ele>
        <time>2017-07-02T10:01:47Z</time>
      </trkpt>
      <trkpt lat="42.39103" lon="0.14646">
        <ele>761.5</ele>
        <time>2017-07-02T10:01:49Z</time>
      </trkpt>
      <trkpt lat="42.39099" lon="0.14648">
        <ele>761.3</ele>
        <time>2017-07-02T10:01:51Z</time>
      </trkpt>
      <trkpt lat="42.39095" lon="0.14647">
        <ele>762.1</ele>
        <time>2017-07-02T10:01:53Z</time>
      </trkpt>
      <trkpt lat="42.39089" lon="0.14647">
        <ele>763.5</ele>
        <time>2017-07-02T10:01:55Z</time>
      </trkpt>
      <trkpt lat="42.39087" lon="0.14649">
        <ele>764.3</ele>
        <time>2017-07-02T10:01:56Z</time>
      </trkpt>
      <trkpt lat="42.39083" lon="0.14653">
        <ele>764.1</ele>
        <time>2017-07-02T10:01:58Z</time>
      </trkpt>
      <trkpt lat="42.39081" lon="0.14657">
        <ele>764.1</ele>
        <time>2017-07-02T10:02:00Z</time>
      </trkpt>
      <trkpt lat="42.39077" lon="0.1466">
        <ele>764.3</ele>
        <time>2017-07-02T10:02:02Z</time>
      </trkpt>
      <trkpt lat="42.39072" lon="0.14661">
        <ele>765.4</ele>
        <time>2017-07-02T10:02:04Z</time>
      </trkpt>
      <trkpt lat="42.39067" lon="0.14663">
        <ele>767.3</ele>
        <time>2017-07-02T10:02:06Z</time>
      </trkpt>
      <trkpt lat="42.39064" lon="0.14664">
        <ele>768.1</ele>
        <time>2017-07-02T10:02:07Z</time>
      </trkpt>
      <trkpt lat="42.39062" lon="0.14666">
        <ele>769.2</ele>
        <time>2017-07-02T10:02:08Z</time>
      </trkpt>
      <trkpt lat="42.39059" lon="0.14669">
        <ele>770</ele>
        <time>2017-07-02T10:02:10Z</time>
      </trkpt>
      <trkpt lat="42.39061" lon="0.14672">
        <ele>769.6</ele>
        <time>2017-07-02T10:02:14Z</time>
      </trkpt>
      <trkpt lat="42.39063" lon="0.14675">
        <ele>768.6</ele>
        <time>2017-07-02T10:02:22Z</time>
      </trkpt>
      <trkpt lat="42.39066" lon="0.14678">
        <ele>768.4</ele>
        <time>2017-07-02T10:02:25Z</time>
      </trkpt>
      <trkpt lat="42.39066" lon="0.14681">
        <ele>768.4</ele>
        <time>2017-07-02T10:02:30Z</time>
      </trkpt>
      <trkpt lat="42.39065" lon="0.14685">
        <ele>768.5</ele>
        <time>2017-07-02T10:02:34Z</time>
      </trkpt>
      <trkpt lat="42.39063" lon="0.14689">
        <ele>768.5</ele>
        <time>2017-07-02T10:02:40Z</time>
      </trkpt>
      <trkpt lat="42.39061" lon="0.14692">
        <ele>768.5</ele>
        <time>2017-07-02T10:02:44Z</time>
      </trkpt>
      <trkpt lat="42.39059" lon="0.14695">
        <ele>768.5</ele>
        <time>2017-07-02T10:02:51Z</time>
      </trkpt>
      <trkpt lat="42.39059" lon="0.14699">
        <ele>768.5</ele>
        <time>2017-07-02T10:02:59Z</time>
      </trkpt>
      <trkpt lat="42.39058" lon="0.14703">
        <ele>768.5</ele>
        <time>2017-07-02T10:03:05Z</time>
      </trkpt>
      <trkpt lat="42.39058" lon="0.14707">
        <ele>768.5</ele>
        <time>2017-07-02T10:03:10Z</time>
      </trkpt>
      <trkpt lat="42.39055" lon="0.14709">
        <ele>768.5</ele>
        <time>2017-07-02T10:03:17Z</time>
      </trkpt>
      <trkpt lat="42.39053" lon="0.14711">
        <ele>768.5</ele>
        <time>2017-07-02T10:03:19Z</time>
      </trkpt>
      <trkpt lat="42.3905" lon="0.14714">
        <ele>768.4</ele>
        <time>2017-07-02T10:03:21Z</time>
      </trkpt>
      <trkpt lat="42.39049" lon="0.14718">
        <ele>768.4</ele>
        <time>2017-07-02T10:03:24Z</time>
      </trkpt>
      <trkpt lat="42.39045" lon="0.14721">
        <ele>768.4</ele>
        <time>2017-07-02T10:03:27Z</time>
      </trkpt>
      <trkpt lat="42.39041" lon="0.14722">
        <ele>768.4</ele>
        <time>2017-07-02T10:03:29Z</time>
      </trkpt>
      <trkpt lat="42.39037" lon="0.14725">
        <ele>768.4</ele>
        <time>2017-07-02T10:03:31Z</time>
      </trkpt>
      <trkpt lat="42.39034" lon="0.14728">
        <ele>768.3</ele>
        <time>2017-07-02T10:03:33Z</time>
      </trkpt>
      <trkpt lat="42.39031" lon="0.14731">
        <ele>768.3</ele>
        <time>2017-07-02T10:03:35Z</time>
      </trkpt>
      <trkpt lat="42.39026" lon="0.14731">
        <ele>768.3</ele>
        <time>2017-07-02T10:03:37Z</time>
      </trkpt>
      <trkpt lat="42.39023" lon="0.1473">
        <ele>768.3</ele>
        <time>2017-07-02T10:03:38Z</time>
      </trkpt>
      <trkpt lat="42.3902" lon="0.14731">
        <ele>768.3</ele>
        <time>2017-07-02T10:03:39Z</time>
      </trkpt>
      <trkpt lat="42.39017" lon="0.14732">
        <ele>768.2</ele>
        <time>2017-07-02T10:03:40Z</time>
      </trkpt>
      <trkpt lat="42.39014" lon="0.14734">
        <ele>768.2</ele>
        <time>2017-07-02T10:03:41Z</time>
      </trkpt>
      <trkpt lat="42.39011" lon="0.14736">
        <ele>768.2</ele>
        <time>2017-07-02T10:03:42Z</time>
      </trkpt>
      <trkpt lat="42.39008" lon="0.14737">
        <ele>768.2</ele>
        <time>2017-07-02T10:03:43Z</time>
      </trkpt>
      <trkpt lat="42.39005" lon="0.14739">
        <ele>768.2</ele>
        <time>2017-07-02T10:03:44Z</time>
      </trkpt>
      <trkpt lat="42.39002" lon="0.1474">
        <ele>768.1</ele>
        <time>2017-07-02T10:03:45Z</time>
      </trkpt>
      <trkpt lat="42.38999" lon="0.14741">
        <ele>768.1</ele>
        <time>2017-07-02T10:03:46Z</time>
      </trkpt>
      <trkpt lat="42.38995" lon="0.14743">
        <ele>768.1</ele>
        <time>2017-07-02T10:03:47Z</time>
      </trkpt>
      <trkpt lat="42.38992" lon="0.14745">
        <ele>768.1</ele>
        <time>2017-07-02T10:03:48Z</time>
      </trkpt>
      <trkpt lat="42.3899" lon="0.14749">
        <ele>768</ele>
        <time>2017-07-02T10:03:49Z</time>
      </trkpt>
      <trkpt lat="42.38988" lon="0.14753">
        <ele>768</ele>
        <time>2017-07-02T10:03:50Z</time>
      </trkpt>
      <trkpt lat="42.38987" lon="0.14756">
        <ele>768</ele>
        <time>2017-07-02T10:03:51Z</time>
      </trkpt>
      <trkpt lat="42.38985" lon="0.14762">
        <ele>768</ele>
        <time>2017-07-02T10:03:53Z</time>
      </trkpt>
      <trkpt lat="42.38983" lon="0.14768">
        <ele>768</ele>
        <time>2017-07-02T10:03:55Z</time>
      </trkpt>
      <trkpt lat="42.38981" lon="0.14772">
        <ele>767.9</ele>
        <time>2017-07-02T10:03:57Z</time>
      </trkpt>
      <trkpt lat="42.38977" lon="0.14776">
        <ele>767.9</ele>
        <time>2017-07-02T10:03:59Z</time>
      </trkpt>
      <trkpt lat="42.38974" lon="0.1478">
        <ele>767.9</ele>
        <time>2017-07-02T10:04:01Z</time>
      </trkpt>
      <trkpt lat="42.38968" lon="0.14781">
        <ele>767.8</ele>
        <time>2017-07-02T10:04:03Z</time>
      </trkpt>
      <trkpt lat="42.38965" lon="0.14782">
        <ele>767.7</ele>
        <time>2017-07-02T10:04:04Z</time>
      </trkpt>
      <trkpt lat="42.38961" lon="0.14786">
        <ele>767.6</ele>
        <time>2017-07-02T10:04:06Z</time>
      </trkpt>
      <trkpt lat="42.38958" lon="0.14791">
        <ele>767.5</ele>
        <time>2017-07-02T10:04:08Z</time>
      </trkpt>
      <trkpt lat="42.38954" lon="0.14795">
        <ele>767.3</ele>
        <time>2017-07-02T10:04:10Z</time>
      </trkpt>
      <trkpt lat="42.38951" lon="0.14797">
        <ele>767.2</ele>
        <time>2017-07-02T10:04:11Z</time>
      </trkpt>
      <trkpt lat="42.38948" lon="0.14799">
        <ele>767.1</ele>
        <time>2017-07-02T10:04:12Z</time>
      </trkpt>
      <trkpt lat="42.38945" lon="0.14801">
        <ele>767</ele>
        <time>2017-07-02T10:04:13Z</time>
      </trkpt>
      <trkpt lat="42.38942" lon="0.14803">
        <ele>766.9</ele>
        <time>2017-07-02T10:04:14Z</time>
      </trkpt>
      <trkpt lat="42.3894" lon="0.14806">
        <ele>766.8</ele>
        <time>2017-07-02T10:04:15Z</time>
      </trkpt>
      <trkpt lat="42.38937" lon="0.14808">
        <ele>766.5</ele>
        <time>2017-07-02T10:04:16Z</time>
      </trkpt>
      <trkpt lat="42.38934" lon="0.14812">
        <ele>766.1</ele>
        <time>2017-07-02T10:04:18Z</time>
      </trkpt>
      <trkpt lat="42.3893" lon="0.14815">
        <ele>765.5</ele>
        <time>2017-07-02T10:04:20Z</time>
      </trkpt>
      <trkpt lat="42.38924" lon="0.14816">
        <ele>764.7</ele>
        <time>2017-07-02T10:04:22Z</time>
      </trkpt>
      <trkpt lat="42.38921" lon="0.14817">
        <ele>764.2</ele>
        <time>2017-07-02T10:04:23Z</time>
      </trkpt>
      <trkpt lat="42.38918" lon="0.14819">
        <ele>763.4</ele>
        <time>2017-07-02T10:04:24Z</time>
      </trkpt>
      <trkpt lat="42.38915" lon="0.14822">
        <ele>762.8</ele>
        <time>2017-07-02T10:04:25Z</time>
      </trkpt>
      <trkpt lat="42.38913" lon="0.14825">
        <ele>762.3</ele>
        <time>2017-07-02T10:04:26Z</time>
      </trkpt>
      <trkpt lat="42.3891" lon="0.14828">
        <ele>761.6</ele>
        <time>2017-07-02T10:04:27Z</time>
      </trkpt>
      <trkpt lat="42.38907" lon="0.14831">
        <ele>761</ele>
        <time>2017-07-02T10:04:28Z</time>
      </trkpt>
      <trkpt lat="42.38904" lon="0.14832">
        <ele>760.4</ele>
        <time>2017-07-02T10:04:29Z</time>
      </trkpt>
      <trkpt lat="42.38899" lon="0.1483">
        <ele>759.4</ele>
        <time>2017-07-02T10:04:31Z</time>
      </trkpt>
      <trkpt lat="42.38896" lon="0.14829">
        <ele>758.8</ele>
        <time>2017-07-02T10:04:32Z</time>
      </trkpt>
      <trkpt lat="42.38892" lon="0.14829">
        <ele>757.9</ele>
        <time>2017-07-02T10:04:34Z</time>
      </trkpt>
      <trkpt lat="42.38889" lon="0.14832">
        <ele>756.9</ele>
        <time>2017-07-02T10:04:36Z</time>
      </trkpt>
      <trkpt lat="42.38887" lon="0.14835">
        <ele>756.1</ele>
        <time>2017-07-02T10:04:45Z</time>
      </trkpt>
      <trkpt lat="42.38884" lon="0.14837">
        <ele>755.4</ele>
        <time>2017-07-02T10:04:50Z</time>
      </trkpt>
      <trkpt lat="42.38882" lon="0.14839">
        <ele>754.5</ele>
        <time>2017-07-02T10:04:54Z</time>
      </trkpt>
      <trkpt lat="42.38879" lon="0.14843">
        <ele>753.6</ele>
        <time>2017-07-02T10:04:56Z</time>
      </trkpt>
      <trkpt lat="42.38876" lon="0.14845">
        <ele>752.8</ele>
        <time>2017-07-02T10:04:58Z</time>
      </trkpt>
      <trkpt lat="42.38874" lon="0.14848">
        <ele>751.9</ele>
        <time>2017-07-02T10:05:00Z</time>
      </trkpt>
      <trkpt lat="42.38872" lon="0.14852">
        <ele>751.4</ele>
        <time>2017-07-02T10:05:02Z</time>
      </trkpt>
      <trkpt lat="42.38871" lon="0.14857">
        <ele>751.1</ele>
        <time>2017-07-02T10:05:04Z</time>
      </trkpt>
      <trkpt lat="42.38867" lon="0.14862">
        <ele>750.8</ele>
        <time>2017-07-02T10:05:06Z</time>
      </trkpt>
      <trkpt lat="42.38863" lon="0.14864">
        <ele>750.6</ele>
        <time>2017-07-02T10:05:08Z</time>
      </trkpt>
      <trkpt lat="42.3886" lon="0.14866">
        <ele>750.5</ele>
        <time>2017-07-02T10:05:10Z</time>
      </trkpt>
      <trkpt lat="42.38855" lon="0.14869">
        <ele>750.4</ele>
        <time>2017-07-02T10:05:12Z</time>
      </trkpt>
      <trkpt lat="42.38851" lon="0.14869">
        <ele>750.4</ele>
        <time>2017-07-02T10:05:14Z</time>
      </trkpt>
      <trkpt lat="42.38846" lon="0.14871">
        <ele>750.3</ele>
        <time>2017-07-02T10:05:16Z</time>
      </trkpt>
      <trkpt lat="42.38842" lon="0.14875">
        <ele>750.3</ele>
        <time>2017-07-02T10:05:18Z</time>
      </trkpt>
      <trkpt lat="42.38839" lon="0.1488">
        <ele>750.3</ele>
        <time>2017-07-02T10:05:20Z</time>
      </trkpt>
      <trkpt lat="42.38837" lon="0.14885">
        <ele>750.2</ele>
        <time>2017-07-02T10:05:22Z</time>
      </trkpt>
      <trkpt lat="42.38836" lon="0.14891">
        <ele>750.2</ele>
        <time>2017-07-02T10:05:24Z</time>
      </trkpt>
      <trkpt lat="42.38834" lon="0.14896">
        <ele>750.2</ele>
        <time>2017-07-02T10:05:26Z</time>
      </trkpt>
      <trkpt lat="42.3883" lon="0.14901">
        <ele>750.2</ele>
        <time>2017-07-02T10:05:28Z</time>
      </trkpt>
      <trkpt lat="42.38827" lon="0.14903">
        <ele>750.2</ele>
        <time>2017-07-02T10:05:29Z</time>
      </trkpt>
      <trkpt lat="42.38824" lon="0.14904">
        <ele>750.2</ele>
        <time>2017-07-02T10:05:30Z</time>
      </trkpt>
      <trkpt lat="42.38821" lon="0.14905">
        <ele>750.2</ele>
        <time>2017-07-02T10:05:31Z</time>
      </trkpt>
      <trkpt lat="42.38818" lon="0.14906">
        <ele>750.3</ele>
        <time>2017-07-02T10:05:32Z</time>
      </trkpt>
      <trkpt lat="42.38814" lon="0.14908">
        <ele>750.3</ele>
        <time>2017-07-02T10:05:33Z</time>
      </trkpt>
      <trkpt lat="42.38811" lon="0.1491">
        <ele>750.4</ele>
        <time>2017-07-02T10:05:34Z</time>
      </trkpt>
      <trkpt lat="42.38807" lon="0.14912">
        <ele>750.5</ele>
        <time>2017-07-02T10:05:35Z</time>
      </trkpt>
      <trkpt lat="42.38804" lon="0.14914">
        <ele>750.7</ele>
        <time>2017-07-02T10:05:36Z</time>
      </trkpt>
      <trkpt lat="42.388" lon="0.14916">
        <ele>751.1</ele>
        <time>2017-07-02T10:05:37Z</time>
      </trkpt>
      <trkpt lat="42.38797" lon="0.14917">
        <ele>751.3</ele>
        <time>2017-07-02T10:05:38Z</time>
      </trkpt>
      <trkpt lat="42.38793" lon="0.14917">
        <ele>751.4</ele>
        <time>2017-07-02T10:05:39Z</time>
      </trkpt>
      <trkpt lat="42.3879" lon="0.14916">
        <ele>751.5</ele>
        <time>2017-07-02T10:05:40Z</time>
      </trkpt>
      <trkpt lat="42.38788" lon="0.14916">
        <ele>751.6</ele>
        <time>2017-07-02T10:05:41Z</time>
      </trkpt>
      <trkpt lat="42.38784" lon="0.14917">
        <ele>751.7</ele>
        <time>2017-07-02T10:05:43Z</time>
      </trkpt>
      <trkpt lat="42.3878" lon="0.14919">
        <ele>751.8</ele>
        <time>2017-07-02T10:05:45Z</time>
      </trkpt>
      <trkpt lat="42.38777" lon="0.1492">
        <ele>751.9</ele>
        <time>2017-07-02T10:05:47Z</time>
      </trkpt>
      <trkpt lat="42.38773" lon="0.14919">
        <ele>752.2</ele>
        <time>2017-07-02T10:05:49Z</time>
      </trkpt>
      <trkpt lat="42.3877" lon="0.1492">
        <ele>752.4</ele>
        <time>2017-07-02T10:05:50Z</time>
      </trkpt>
      <trkpt lat="42.38767" lon="0.14921">
        <ele>752.8</ele>
        <time>2017-07-02T10:05:51Z</time>
      </trkpt>
      <trkpt lat="42.38763" lon="0.14925">
        <ele>753.2</ele>
        <time>2017-07-02T10:05:53Z</time>
      </trkpt>
      <trkpt lat="42.3876" lon="0.14927">
        <ele>753.4</ele>
        <time>2017-07-02T10:05:55Z</time>
      </trkpt>
      <trkpt lat="42.38756" lon="0.14928">
        <ele>753.6</ele>
        <time>2017-07-02T10:05:57Z</time>
      </trkpt>
      <trkpt lat="42.38751" lon="0.14928">
        <ele>753.7</ele>
        <time>2017-07-02T10:05:59Z</time>
      </trkpt>
      <trkpt lat="42.38747" lon="0.14929">
        <ele>754</ele>
        <time>2017-07-02T10:06:01Z</time>
      </trkpt>
      <trkpt lat="42.38743" lon="0.14933">
        <ele>754.3</ele>
        <time>2017-07-02T10:06:03Z</time>
      </trkpt>
      <trkpt lat="42.3874" lon="0.14937">
        <ele>754.6</ele>
        <time>2017-07-02T10:06:05Z</time>
      </trkpt>
      <trkpt lat="42.38737" lon="0.1494">
        <ele>754.8</ele>
        <time>2017-07-02T10:06:07Z</time>
      </trkpt>
      <trkpt lat="42.38732" lon="0.14944">
        <ele>754.8</ele>
        <time>2017-07-02T10:06:09Z</time>
      </trkpt>
      <trkpt lat="42.38729" lon="0.14948">
        <ele>754.7</ele>
        <time>2017-07-02T10:06:11Z</time>
      </trkpt>
      <trkpt lat="42.38726" lon="0.1495">
        <ele>754.6</ele>
        <time>2017-07-02T10:06:13Z</time>
      </trkpt>
      <trkpt lat="42.38721" lon="0.14952">
        <ele>754.5</ele>
        <time>2017-07-02T10:06:15Z</time>
      </trkpt>
      <trkpt lat="42.38718" lon="0.14955">
        <ele>754.3</ele>
        <time>2017-07-02T10:06:17Z</time>
      </trkpt>
      <trkpt lat="42.38717" lon="0.14959">
        <ele>754.2</ele>
        <time>2017-07-02T10:06:19Z</time>
      </trkpt>
      <trkpt lat="42.38715" lon="0.14963">
        <ele>753.9</ele>
        <time>2017-07-02T10:06:21Z</time>
      </trkpt>
      <trkpt lat="42.38712" lon="0.14968">
        <ele>753.4</ele>
        <time>2017-07-02T10:06:23Z</time>
      </trkpt>
      <trkpt lat="42.3871" lon="0.14971">
        <ele>752.8</ele>
        <time>2017-07-02T10:06:25Z</time>
      </trkpt>
      <trkpt lat="42.38708" lon="0.14973">
        <ele>752.3</ele>
        <time>2017-07-02T10:06:27Z</time>
      </trkpt>
      <trkpt lat="42.38705" lon="0.14975">
        <ele>751.7</ele>
        <time>2017-07-02T10:06:29Z</time>
      </trkpt>
      <trkpt lat="42.38702" lon="0.14978">
        <ele>750.9</ele>
        <time>2017-07-02T10:06:31Z</time>
      </trkpt>
      <trkpt lat="42.387" lon="0.14981">
        <ele>750.4</ele>
        <time>2017-07-02T10:06:33Z</time>
      </trkpt>
      <trkpt lat="42.38691" lon="0.14984">
        <ele>749.3</ele>
        <time>2017-07-02T10:09:42Z</time>
      </trkpt>
      <trkpt lat="42.38688" lon="0.14986">
        <ele>748.9</ele>
        <time>2017-07-02T10:09:44Z</time>
      </trkpt>
      <trkpt lat="42.38686" lon="0.14988">
        <ele>748.5</ele>
        <time>2017-07-02T10:09:46Z</time>
      </trkpt>
      <trkpt lat="42.38683" lon="0.14989">
        <ele>748.1</ele>
        <time>2017-07-02T10:09:48Z</time>
      </trkpt>
      <trkpt lat="42.3868" lon="0.14989">
        <ele>747.7</ele>
        <time>2017-07-02T10:09:50Z</time>
      </trkpt>
      <trkpt lat="42.38677" lon="0.1499">
        <ele>747.3</ele>
        <time>2017-07-02T10:09:52Z</time>
      </trkpt>
      <trkpt lat="42.38673" lon="0.14989">
        <ele>746.8</ele>
        <time>2017-07-02T10:09:54Z</time>
      </trkpt>
      <trkpt lat="42.38669" lon="0.14991">
        <ele>746.3</ele>
        <time>2017-07-02T10:09:56Z</time>
      </trkpt>
      <trkpt lat="42.38667" lon="0.14993">
        <ele>745.9</ele>
        <time>2017-07-02T10:09:57Z</time>
      </trkpt>
      <trkpt lat="42.38665" lon="0.14996">
        <ele>745.6</ele>
        <time>2017-07-02T10:09:58Z</time>
      </trkpt>
      <trkpt lat="42.38662" lon="0.14999">
        <ele>745.2</ele>
        <time>2017-07-02T10:10:00Z</time>
      </trkpt>
      <trkpt lat="42.38659" lon="0.14998">
        <ele>744.9</ele>
        <time>2017-07-02T10:10:21Z</time>
      </trkpt>
      <trkpt lat="42.38657" lon="0.15">
        <ele>744.5</ele>
        <time>2017-07-02T10:10:23Z</time>
      </trkpt>
      <trkpt lat="42.38654" lon="0.15002">
        <ele>744.2</ele>
        <time>2017-07-02T10:10:26Z</time>
      </trkpt>
      <trkpt lat="42.38651" lon="0.15005">
        <ele>743.8</ele>
        <time>2017-07-02T10:10:32Z</time>
      </trkpt>
      <trkpt lat="42.38649" lon="0.15008">
        <ele>743.5</ele>
        <time>2017-07-02T10:10:35Z</time>
      </trkpt>
      <trkpt lat="42.38646" lon="0.15012">
        <ele>743</ele>
        <time>2017-07-02T10:10:37Z</time>
      </trkpt>
      <trkpt lat="42.38644" lon="0.15015">
        <ele>742.7</ele>
        <time>2017-07-02T10:10:38Z</time>
      </trkpt>
      <trkpt lat="42.38641" lon="0.15017">
        <ele>742.4</ele>
        <time>2017-07-02T10:10:40Z</time>
      </trkpt>
      <trkpt lat="42.38638" lon="0.15021">
        <ele>742</ele>
        <time>2017-07-02T10:11:44Z</time>
      </trkpt>
      <trkpt lat="42.38634" lon="0.15024">
        <ele>741.5</ele>
        <time>2017-07-02T10:11:46Z</time>
      </trkpt>
      <trkpt lat="42.38631" lon="0.15026">
        <ele>741.3</ele>
        <time>2017-07-02T10:11:47Z</time>
      </trkpt>
      <trkpt lat="42.38628" lon="0.15028">
        <ele>741</ele>
        <time>2017-07-02T10:11:48Z</time>
      </trkpt>
      <trkpt lat="42.38624" lon="0.15029">
        <ele>740.7</ele>
        <time>2017-07-02T10:11:49Z</time>
      </trkpt>
      <trkpt lat="42.38619" lon="0.1503">
        <ele>740.6</ele>
        <time>2017-07-02T10:11:50Z</time>
      </trkpt>
      <trkpt lat="42.38613" lon="0.15033">
        <ele>740.5</ele>
        <time>2017-07-02T10:11:51Z</time>
      </trkpt>
      <trkpt lat="42.38608" lon="0.15035">
        <ele>740.4</ele>
        <time>2017-07-02T10:11:52Z</time>
      </trkpt>
      <trkpt lat="42.38603" lon="0.15037">
        <ele>740.3</ele>
        <time>2017-07-02T10:11:53Z</time>
      </trkpt>
      <trkpt lat="42.38598" lon="0.15039">
        <ele>740.3</ele>
        <time>2017-07-02T10:11:54Z</time>
      </trkpt>
      <trkpt lat="42.38594" lon="0.15042">
        <ele>740.2</ele>
        <time>2017-07-02T10:11:55Z</time>
      </trkpt>
      <trkpt lat="42.3859" lon="0.15045">
        <ele>740.2</ele>
        <time>2017-07-02T10:11:56Z</time>
      </trkpt>
      <trkpt lat="42.38587" lon="0.15048">
        <ele>740.2</ele>
        <time>2017-07-02T10:11:57Z</time>
      </trkpt>
      <trkpt lat="42.38584" lon="0.15052">
        <ele>740.2</ele>
        <time>2017-07-02T10:11:58Z</time>
      </trkpt>
      <trkpt lat="42.38583" lon="0.15055">
        <ele>740.2</ele>
        <time>2017-07-02T10:11:59Z</time>
      </trkpt>
      <trkpt lat="42.3858" lon="0.1506">
        <ele>740.2</ele>
        <time>2017-07-02T10:12:01Z</time>
      </trkpt>
      <trkpt lat="42.38578" lon="0.15064">
        <ele>740.2</ele>
        <time>2017-07-02T10:12:03Z</time>
      </trkpt>
      <trkpt lat="42.38573" lon="0.15066">
        <ele>740.2</ele>
        <time>2017-07-02T10:12:05Z</time>
      </trkpt>
      <trkpt lat="42.3857" lon="0.15067">
        <ele>740.2</ele>
        <time>2017-07-02T10:12:06Z</time>
      </trkpt>
      <trkpt lat="42.38567" lon="0.15068">
        <ele>740.2</ele>
        <time>2017-07-02T10:12:07Z</time>
      </trkpt>
      <trkpt lat="42.38563" lon="0.1507">
        <ele>740.2</ele>
        <time>2017-07-02T10:12:08Z</time>
      </trkpt>
      <trkpt lat="42.3856" lon="0.15071">
        <ele>740.3</ele>
        <time>2017-07-02T10:12:09Z</time>
      </trkpt>
      <trkpt lat="42.38556" lon="0.15073">
        <ele>740.4</ele>
        <time>2017-07-02T10:12:10Z</time>
      </trkpt>
      <trkpt lat="42.38553" lon="0.15075">
        <ele>740.6</ele>
        <time>2017-07-02T10:12:11Z</time>
      </trkpt>
      <trkpt lat="42.3855" lon="0.15076">
        <ele>740.9</ele>
        <time>2017-07-02T10:12:12Z</time>
      </trkpt>
      <trkpt lat="42.38547" lon="0.15077">
        <ele>741.2</ele>
        <time>2017-07-02T10:12:14Z</time>
      </trkpt>
      <trkpt lat="42.38544" lon="0.15076">
        <ele>741.3</ele>
        <time>2017-07-02T10:12:16Z</time>
      </trkpt>
      <trkpt lat="42.3854" lon="0.15077">
        <ele>741.4</ele>
        <time>2017-07-02T10:12:18Z</time>
      </trkpt>
      <trkpt lat="42.38535" lon="0.1508">
        <ele>741.5</ele>
        <time>2017-07-02T10:12:20Z</time>
      </trkpt>
      <trkpt lat="42.3853" lon="0.15082">
        <ele>741.5</ele>
        <time>2017-07-02T10:12:22Z</time>
      </trkpt>
      <trkpt lat="42.38526" lon="0.15083">
        <ele>741.6</ele>
        <time>2017-07-02T10:12:24Z</time>
      </trkpt>
      <trkpt lat="42.38522" lon="0.15084">
        <ele>741.6</ele>
        <time>2017-07-02T10:12:26Z</time>
      </trkpt>
      <trkpt lat="42.38517" lon="0.15086">
        <ele>741.6</ele>
        <time>2017-07-02T10:12:28Z</time>
      </trkpt>
      <trkpt lat="42.38513" lon="0.15088">
        <ele>741.6</ele>
        <time>2017-07-02T10:12:30Z</time>
      </trkpt>
      <trkpt lat="42.38509" lon="0.15091">
        <ele>741.5</ele>
        <time>2017-07-02T10:12:32Z</time>
      </trkpt>
      <trkpt lat="42.38506" lon="0.15093">
        <ele>741.5</ele>
        <time>2017-07-02T10:12:34Z</time>
      </trkpt>
      <trkpt lat="42.38502" lon="0.15095">
        <ele>741.5</ele>
        <time>2017-07-02T10:12:36Z</time>
      </trkpt>
      <trkpt lat="42.38498" lon="0.15095">
        <ele>741.5</ele>
        <time>2017-07-02T10:12:38Z</time>
      </trkpt>
      <trkpt lat="42.38494" lon="0.15094">
        <ele>741.5</ele>
        <time>2017-07-02T10:12:39Z</time>
      </trkpt>
      <trkpt lat="42.38491" lon="0.15092">
        <ele>741.4</ele>
        <time>2017-07-02T10:12:40Z</time>
      </trkpt>
      <trkpt lat="42.38488" lon="0.1509">
        <ele>741.4</ele>
        <time>2017-07-02T10:12:41Z</time>
      </trkpt>
      <trkpt lat="42.38484" lon="0.15089">
        <ele>741.4</ele>
        <time>2017-07-02T10:12:42Z</time>
      </trkpt>
      <trkpt lat="42.38481" lon="0.15089">
        <ele>741.4</ele>
        <time>2017-07-02T10:12:43Z</time>
      </trkpt>
      <trkpt lat="42.38476" lon="0.1509">
        <ele>741.3</ele>
        <time>2017-07-02T10:12:45Z</time>
      </trkpt>
      <trkpt lat="42.38472" lon="0.15092">
        <ele>741.3</ele>
        <time>2017-07-02T10:12:47Z</time>
      </trkpt>
      <trkpt lat="42.38469" lon="0.15094">
        <ele>741.3</ele>
        <time>2017-07-02T10:12:49Z</time>
      </trkpt>
      <trkpt lat="42.38464" lon="0.15094">
        <ele>741</ele>
        <time>2017-07-02T10:12:51Z</time>
      </trkpt>
      <trkpt lat="42.3846" lon="0.15095">
        <ele>740.4</ele>
        <time>2017-07-02T10:12:52Z</time>
      </trkpt>
      <trkpt lat="42.38457" lon="0.15096">
        <ele>740</ele>
        <time>2017-07-02T10:12:53Z</time>
      </trkpt>
      <trkpt lat="42.38454" lon="0.15099">
        <ele>739.8</ele>
        <time>2017-07-02T10:12:54Z</time>
      </trkpt>
      <trkpt lat="42.38451" lon="0.15102">
        <ele>739.5</ele>
        <time>2017-07-02T10:12:55Z</time>
      </trkpt>
      <trkpt lat="42.38448" lon="0.15106">
        <ele>739.6</ele>
        <time>2017-07-02T10:12:57Z</time>
      </trkpt>
      <trkpt lat="42.38443" lon="0.15109">
        <ele>739.8</ele>
        <time>2017-07-02T10:12:59Z</time>
      </trkpt>
      <trkpt lat="42.3844" lon="0.15111">
        <ele>740.1</ele>
        <time>2017-07-02T10:13:00Z</time>
      </trkpt>
      <trkpt lat="42.38437" lon="0.15113">
        <ele>740</ele>
        <time>2017-07-02T10:13:01Z</time>
      </trkpt>
      <trkpt lat="42.38434" lon="0.15116">
        <ele>740.4</ele>
        <time>2017-07-02T10:13:02Z</time>
      </trkpt>
      <trkpt lat="42.38431" lon="0.15118">
        <ele>740.3</ele>
        <time>2017-07-02T10:13:03Z</time>
      </trkpt>
      <trkpt lat="42.38428" lon="0.15121">
        <ele>740.7</ele>
        <time>2017-07-02T10:13:04Z</time>
      </trkpt>
      <trkpt lat="42.38425" lon="0.15123">
        <ele>740.5</ele>
        <time>2017-07-02T10:13:05Z</time>
      </trkpt>
      <trkpt lat="42.38422" lon="0.15126">
        <ele>740.7</ele>
        <time>2017-07-02T10:13:06Z</time>
      </trkpt>
      <trkpt lat="42.3842" lon="0.15128">
        <ele>741</ele>
        <time>2017-07-02T10:13:07Z</time>
      </trkpt>
      <trkpt lat="42.38417" lon="0.15132">
        <ele>741</ele>
        <time>2017-07-02T10:13:09Z</time>
      </trkpt>
      <trkpt lat="42.38414" lon="0.15135">
        <ele>740.6</ele>
        <time>2017-07-02T10:13:11Z</time>
      </trkpt>
      <trkpt lat="42.38412" lon="0.15136">
        <ele>740.5</ele>
        <time>2017-07-02T10:13:13Z</time>
      </trkpt>
      <trkpt lat="42.38409" lon="0.15139">
        <ele>740</ele>
        <time>2017-07-02T10:13:15Z</time>
      </trkpt>
      <trkpt lat="42.38406" lon="0.15142">
        <ele>739.7</ele>
        <time>2017-07-02T10:13:18Z</time>
      </trkpt>
      <trkpt lat="42.38403" lon="0.15144">
        <ele>739.1</ele>
        <time>2017-07-02T10:13:35Z</time>
      </trkpt>
      <trkpt lat="42.38401" lon="0.15145">
        <ele>739.4</ele>
        <time>2017-07-02T10:13:41Z</time>
      </trkpt>
      <trkpt lat="42.38398" lon="0.15147">
        <ele>738.8</ele>
        <time>2017-07-02T10:13:45Z</time>
      </trkpt>
      <trkpt lat="42.38396" lon="0.15149">
        <ele>738.1</ele>
        <time>2017-07-02T10:13:49Z</time>
      </trkpt>
      <trkpt lat="42.38392" lon="0.15145">
        <ele>737.6</ele>
        <time>2017-07-02T10:13:53Z</time>
      </trkpt>
      <trkpt lat="42.38388" lon="0.15147">
        <ele>737.1</ele>
        <time>2017-07-02T10:13:55Z</time>
      </trkpt>
      <trkpt lat="42.38385" lon="0.15149">
        <ele>737</ele>
        <time>2017-07-02T10:13:56Z</time>
      </trkpt>
      <trkpt lat="42.38382" lon="0.15152">
        <ele>736.6</ele>
        <time>2017-07-02T10:13:57Z</time>
      </trkpt>
      <trkpt lat="42.38379" lon="0.15154">
        <ele>736.4</ele>
        <time>2017-07-02T10:13:58Z</time>
      </trkpt>
      <trkpt lat="42.38375" lon="0.15155">
        <ele>735.8</ele>
        <time>2017-07-02T10:13:59Z</time>
      </trkpt>
      <trkpt lat="42.38371" lon="0.15156">
        <ele>735.4</ele>
        <time>2017-07-02T10:14:00Z</time>
      </trkpt>
      <trkpt lat="42.38367" lon="0.15155">
        <ele>735</ele>
        <time>2017-07-02T10:14:02Z</time>
      </trkpt>
      <trkpt lat="42.38363" lon="0.15155">
        <ele>734.6</ele>
        <time>2017-07-02T10:14:04Z</time>
      </trkpt>
      <trkpt lat="42.3836" lon="0.15155">
        <ele>734.2</ele>
        <time>2017-07-02T10:14:06Z</time>
      </trkpt>
      <trkpt lat="42.38357" lon="0.15157">
        <ele>733.7</ele>
        <time>2017-07-02T10:14:08Z</time>
      </trkpt>
      <trkpt lat="42.38354" lon="0.15161">
        <ele>733.4</ele>
        <time>2017-07-02T10:14:10Z</time>
      </trkpt>
      <trkpt lat="42.38352" lon="0.15164">
        <ele>733</ele>
        <time>2017-07-02T10:14:11Z</time>
      </trkpt>
      <trkpt lat="42.3835" lon="0.15167">
        <ele>733</ele>
        <time>2017-07-02T10:14:12Z</time>
      </trkpt>
      <trkpt lat="42.38348" lon="0.15169">
        <ele>732.4</ele>
        <time>2017-07-02T10:14:13Z</time>
      </trkpt>
      <trkpt lat="42.38345" lon="0.15172">
        <ele>731.9</ele>
        <time>2017-07-02T10:14:14Z</time>
      </trkpt>
      <trkpt lat="42.38343" lon="0.15175">
        <ele>731.2</ele>
        <time>2017-07-02T10:14:15Z</time>
      </trkpt>
      <trkpt lat="42.3834" lon="0.15178">
        <ele>731.5</ele>
        <time>2017-07-02T10:14:16Z</time>
      </trkpt>
      <trkpt lat="42.38338" lon="0.15181">
        <ele>731.3</ele>
        <time>2017-07-02T10:14:17Z</time>
      </trkpt>
      <trkpt lat="42.38336" lon="0.15184">
        <ele>731.2</ele>
        <time>2017-07-02T10:14:18Z</time>
      </trkpt>
      <trkpt lat="42.38334" lon="0.15189">
        <ele>731.5</ele>
        <time>2017-07-02T10:14:19Z</time>
      </trkpt>
      <trkpt lat="42.38333" lon="0.15192">
        <ele>730.9</ele>
        <time>2017-07-02T10:14:20Z</time>
      </trkpt>
      <trkpt lat="42.38331" lon="0.15198">
        <ele>731.6</ele>
        <time>2017-07-02T10:14:22Z</time>
      </trkpt>
      <trkpt lat="42.38331" lon="0.15202">
        <ele>731.8</ele>
        <time>2017-07-02T10:14:23Z</time>
      </trkpt>
      <trkpt lat="42.38331" lon="0.15207">
        <ele>732.1</ele>
        <time>2017-07-02T10:14:24Z</time>
      </trkpt>
      <trkpt lat="42.3833" lon="0.15212">
        <ele>732.6</ele>
        <time>2017-07-02T10:14:25Z</time>
      </trkpt>
      <trkpt lat="42.38329" lon="0.15216">
        <ele>732.9</ele>
        <time>2017-07-02T10:14:26Z</time>
      </trkpt>
      <trkpt lat="42.38327" lon="0.15222">
        <ele>733.4</ele>
        <time>2017-07-02T10:14:28Z</time>
      </trkpt>
      <trkpt lat="42.38327" lon="0.15226">
        <ele>733.8</ele>
        <time>2017-07-02T10:14:31Z</time>
      </trkpt>
      <trkpt lat="42.38325" lon="0.1523">
        <ele>734.2</ele>
        <time>2017-07-02T10:14:33Z</time>
      </trkpt>
      <trkpt lat="42.38323" lon="0.15235">
        <ele>734.5</ele>
        <time>2017-07-02T10:14:35Z</time>
      </trkpt>
      <trkpt lat="42.38321" lon="0.15238">
        <ele>734.6</ele>
        <time>2017-07-02T10:14:39Z</time>
      </trkpt>
      <trkpt lat="42.3832" lon="0.15241">
        <ele>734.8</ele>
        <time>2017-07-02T10:14:45Z</time>
      </trkpt>
      <trkpt lat="42.38319" lon="0.15245">
        <ele>735</ele>
        <time>2017-07-02T10:14:47Z</time>
      </trkpt>
      <trkpt lat="42.38318" lon="0.1525">
        <ele>735.4</ele>
        <time>2017-07-02T10:14:49Z</time>
      </trkpt>
      <trkpt lat="42.38317" lon="0.15254">
        <ele>735.8</ele>
        <time>2017-07-02T10:14:52Z</time>
      </trkpt>
      <trkpt lat="42.38315" lon="0.15256">
        <ele>736</ele>
        <time>2017-07-02T10:14:54Z</time>
      </trkpt>
      <trkpt lat="42.38312" lon="0.15258">
        <ele>736.2</ele>
        <time>2017-07-02T10:14:56Z</time>
      </trkpt>
      <trkpt lat="42.3831" lon="0.1526">
        <ele>736.4</ele>
        <time>2017-07-02T10:14:58Z</time>
      </trkpt>
      <trkpt lat="42.38307" lon="0.15263">
        <ele>736.5</ele>
        <time>2017-07-02T10:15:01Z</time>
      </trkpt>
      <trkpt lat="42.38303" lon="0.15265">
        <ele>736.8</ele>
        <time>2017-07-02T10:15:03Z</time>
      </trkpt>
      <trkpt lat="42.383" lon="0.15268">
        <ele>737.4</ele>
        <time>2017-07-02T10:15:05Z</time>
      </trkpt>
      <trkpt lat="42.38297" lon="0.1527">
        <ele>738</ele>
        <time>2017-07-02T10:15:07Z</time>
      </trkpt>
      <trkpt lat="42.38296" lon="0.15273">
        <ele>738.7</ele>
        <time>2017-07-02T10:15:10Z</time>
      </trkpt>
      <trkpt lat="42.38293" lon="0.15276">
        <ele>739.2</ele>
        <time>2017-07-02T10:15:18Z</time>
      </trkpt>
      <trkpt lat="42.38291" lon="0.15278">
        <ele>739.3</ele>
        <time>2017-07-02T10:15:24Z</time>
      </trkpt>
      <trkpt lat="42.38289" lon="0.15281">
        <ele>739.4</ele>
        <time>2017-07-02T10:15:28Z</time>
      </trkpt>
      <trkpt lat="42.38286" lon="0.15283">
        <ele>739.4</ele>
        <time>2017-07-02T10:15:36Z</time>
      </trkpt>
      <trkpt lat="42.38285" lon="0.15287">
        <ele>739.5</ele>
        <time>2017-07-02T10:15:51Z</time>
      </trkpt>
      <trkpt lat="42.38284" lon="0.1529">
        <ele>739.5</ele>
        <time>2017-07-02T10:15:55Z</time>
      </trkpt>
      <trkpt lat="42.38281" lon="0.15293">
        <ele>739.5</ele>
        <time>2017-07-02T10:16:00Z</time>
      </trkpt>
      <trkpt lat="42.38284" lon="0.15291">
        <ele>739.5</ele>
        <time>2017-07-02T10:18:04Z</time>
      </trkpt>
      <trkpt lat="42.38287" lon="0.15291">
        <ele>739.4</ele>
        <time>2017-07-02T10:18:11Z</time>
      </trkpt>
      <trkpt lat="42.38285" lon="0.15293">
        <ele>739.4</ele>
        <time>2017-07-02T10:18:18Z</time>
      </trkpt>
      <trkpt lat="42.38283" lon="0.15296">
        <ele>739.3</ele>
        <time>2017-07-02T10:18:23Z</time>
      </trkpt>
      <trkpt lat="42.38281" lon="0.15292">
        <ele>739.2</ele>
        <time>2017-07-02T10:20:39Z</time>
      </trkpt>
      <trkpt lat="42.38281" lon="0.15282">
        <ele>739.1</ele>
        <time>2017-07-02T10:22:05Z</time>
      </trkpt>
      <trkpt lat="42.38278" lon="0.15284">
        <ele>738.9</ele>
        <time>2017-07-02T10:22:07Z</time>
      </trkpt>
      <trkpt lat="42.38275" lon="0.15288">
        <ele>738.8</ele>
        <time>2017-07-02T10:22:09Z</time>
      </trkpt>
      <trkpt lat="42.38271" lon="0.15291">
        <ele>738.6</ele>
        <time>2017-07-02T10:22:11Z</time>
      </trkpt>
      <trkpt lat="42.38267" lon="0.15295">
        <ele>738.3</ele>
        <time>2017-07-02T10:22:13Z</time>
      </trkpt>
      <trkpt lat="42.38265" lon="0.15298">
        <ele>738.1</ele>
        <time>2017-07-02T10:22:14Z</time>
      </trkpt>
      <trkpt lat="42.38262" lon="0.153">
        <ele>737.8</ele>
        <time>2017-07-02T10:22:15Z</time>
      </trkpt>
      <trkpt lat="42.38259" lon="0.15302">
        <ele>737.6</ele>
        <time>2017-07-02T10:22:16Z</time>
      </trkpt>
      <trkpt lat="42.38255" lon="0.15303">
        <ele>737.3</ele>
        <time>2017-07-02T10:22:17Z</time>
      </trkpt>
      <trkpt lat="42.38252" lon="0.15303">
        <ele>737</ele>
        <time>2017-07-02T10:22:18Z</time>
      </trkpt>
      <trkpt lat="42.38249" lon="0.15304">
        <ele>736.8</ele>
        <time>2017-07-02T10:22:19Z</time>
      </trkpt>
      <trkpt lat="42.38247" lon="0.15305">
        <ele>736.5</ele>
        <time>2017-07-02T10:22:20Z</time>
      </trkpt>
      <trkpt lat="42.38244" lon="0.15307">
        <ele>736.2</ele>
        <time>2017-07-02T10:22:21Z</time>
      </trkpt>
      <trkpt lat="42.38241" lon="0.15308">
        <ele>735.9</ele>
        <time>2017-07-02T10:22:22Z</time>
      </trkpt>
      <trkpt lat="42.38238" lon="0.1531">
        <ele>735.6</ele>
        <time>2017-07-02T10:22:23Z</time>
      </trkpt>
      <trkpt lat="42.38235" lon="0.15311">
        <ele>735.2</ele>
        <time>2017-07-02T10:22:24Z</time>
      </trkpt>
      <trkpt lat="42.38232" lon="0.15313">
        <ele>734.8</ele>
        <time>2017-07-02T10:22:25Z</time>
      </trkpt>
      <trkpt lat="42.38229" lon="0.15313">
        <ele>734.4</ele>
        <time>2017-07-02T10:22:26Z</time>
      </trkpt>
      <trkpt lat="42.38226" lon="0.15314">
        <ele>734</ele>
        <time>2017-07-02T10:22:27Z</time>
      </trkpt>
      <trkpt lat="42.38224" lon="0.15315">
        <ele>733.6</ele>
        <time>2017-07-02T10:22:28Z</time>
      </trkpt>
      <trkpt lat="42.3822" lon="0.15317">
        <ele>733</ele>
        <time>2017-07-02T10:22:30Z</time>
      </trkpt>
      <trkpt lat="42.38218" lon="0.15321">
        <ele>732.7</ele>
        <time>2017-07-02T10:22:32Z</time>
      </trkpt>
      <trkpt lat="42.38218" lon="0.15327">
        <ele>732.3</ele>
        <time>2017-07-02T10:22:34Z</time>
      </trkpt>
      <trkpt lat="42.38216" lon="0.15331">
        <ele>731.9</ele>
        <time>2017-07-02T10:22:36Z</time>
      </trkpt>
      <trkpt lat="42.38213" lon="0.15331">
        <ele>731.3</ele>
        <time>2017-07-02T10:22:38Z</time>
      </trkpt>
      <trkpt lat="42.3821" lon="0.15329">
        <ele>730.7</ele>
        <time>2017-07-02T10:22:40Z</time>
      </trkpt>
      <trkpt lat="42.38207" lon="0.15327">
        <ele>729.6</ele>
        <time>2017-07-02T10:22:42Z</time>
      </trkpt>
      <trkpt lat="42.38204" lon="0.15325">
        <ele>729.2</ele>
        <time>2017-07-02T10:22:44Z</time>
      </trkpt>
      <trkpt lat="42.38199" lon="0.15323">
        <ele>728.6</ele>
        <time>2017-07-02T10:22:46Z</time>
      </trkpt>
      <trkpt lat="42.38196" lon="0.15319">
        <ele>728.7</ele>
        <time>2017-07-02T10:22:49Z</time>
      </trkpt>
      <trkpt lat="42.38197" lon="0.15314">
        <ele>728.7</ele>
        <time>2017-07-02T10:22:51Z</time>
      </trkpt>
      <trkpt lat="42.38198" lon="0.15309">
        <ele>729.2</ele>
        <time>2017-07-02T10:22:54Z</time>
      </trkpt>
      <trkpt lat="42.38194" lon="0.15307">
        <ele>727.4</ele>
        <time>2017-07-02T10:22:57Z</time>
      </trkpt>
      <trkpt lat="42.38191" lon="0.15305">
        <ele>726.7</ele>
        <time>2017-07-02T10:22:59Z</time>
      </trkpt>
      <trkpt lat="42.3819" lon="0.153">
        <ele>726.3</ele>
        <time>2017-07-02T10:23:01Z</time>
      </trkpt>
      <trkpt lat="42.38188" lon="0.15295">
        <ele>726.4</ele>
        <time>2017-07-02T10:23:03Z</time>
      </trkpt>
      <trkpt lat="42.38187" lon="0.15289">
        <ele>725.5</ele>
        <time>2017-07-02T10:23:05Z</time>
      </trkpt>
      <trkpt lat="42.38186" lon="0.15283">
        <ele>725.5</ele>
        <time>2017-07-02T10:23:07Z</time>
      </trkpt>
      <trkpt lat="42.38186" lon="0.15275">
        <ele>724.9</ele>
        <time>2017-07-02T10:23:09Z</time>
      </trkpt>
      <trkpt lat="42.38187" lon="0.15271">
        <ele>724.5</ele>
        <time>2017-07-02T10:23:10Z</time>
      </trkpt>
      <trkpt lat="42.38188" lon="0.15267">
        <ele>724</ele>
        <time>2017-07-02T10:23:11Z</time>
      </trkpt>
      <trkpt lat="42.38191" lon="0.15262">
        <ele>724.4</ele>
        <time>2017-07-02T10:23:13Z</time>
      </trkpt>
      <trkpt lat="42.38192" lon="0.15259">
        <ele>724.8</ele>
        <time>2017-07-02T10:23:14Z</time>
      </trkpt>
      <trkpt lat="42.38196" lon="0.15254">
        <ele>725.1</ele>
        <time>2017-07-02T10:23:16Z</time>
      </trkpt>
      <trkpt lat="42.382" lon="0.1525">
        <ele>725.5</ele>
        <time>2017-07-02T10:23:18Z</time>
      </trkpt>
      <trkpt lat="42.38204" lon="0.15247">
        <ele>726.8</ele>
        <time>2017-07-02T10:23:20Z</time>
      </trkpt>
      <trkpt lat="42.38207" lon="0.15243">
        <ele>725.9</ele>
        <time>2017-07-02T10:23:22Z</time>
      </trkpt>
      <trkpt lat="42.38209" lon="0.15235">
        <ele>724.9</ele>
        <time>2017-07-02T10:23:24Z</time>
      </trkpt>
      <trkpt lat="42.3821" lon="0.15231">
        <ele>723.9</ele>
        <time>2017-07-02T10:23:25Z</time>
      </trkpt>
      <trkpt lat="42.38211" lon="0.15227">
        <ele>724.6</ele>
        <time>2017-07-02T10:23:26Z</time>
      </trkpt>
      <trkpt lat="42.38213" lon="0.15223">
        <ele>723.7</ele>
        <time>2017-07-02T10:23:27Z</time>
      </trkpt>
      <trkpt lat="42.38216" lon="0.1522">
        <ele>723.4</ele>
        <time>2017-07-02T10:23:28Z</time>
      </trkpt>
      <trkpt lat="42.38219" lon="0.15218">
        <ele>722.9</ele>
        <time>2017-07-02T10:23:29Z</time>
      </trkpt>
      <trkpt lat="42.38222" lon="0.15216">
        <ele>723.2</ele>
        <time>2017-07-02T10:23:30Z</time>
      </trkpt>
      <trkpt lat="42.38224" lon="0.15216">
        <ele>723.4</ele>
        <time>2017-07-02T10:23:31Z</time>
      </trkpt>
      <trkpt lat="42.38229" lon="0.15214">
        <ele>724.3</ele>
        <time>2017-07-02T10:23:33Z</time>
      </trkpt>
      <trkpt lat="42.38234" lon="0.15212">
        <ele>723.6</ele>
        <time>2017-07-02T10:23:35Z</time>
      </trkpt>
      <trkpt lat="42.38238" lon="0.15212">
        <ele>724.1</ele>
        <time>2017-07-02T10:23:37Z</time>
      </trkpt>
      <trkpt lat="42.38243" lon="0.15212">
        <ele>725</ele>
        <time>2017-07-02T10:23:41Z</time>
      </trkpt>
      <trkpt lat="42.38248" lon="0.15214">
        <ele>726.9</ele>
        <time>2017-07-02T10:23:43Z</time>
      </trkpt>
      <trkpt lat="42.38252" lon="0.15214">
        <ele>727.5</ele>
        <time>2017-07-02T10:23:45Z</time>
      </trkpt>
      <trkpt lat="42.38254" lon="0.15213">
        <ele>725.9</ele>
        <time>2017-07-02T10:23:47Z</time>
      </trkpt>
      <trkpt lat="42.38256" lon="0.1521">
        <ele>726.2</ele>
        <time>2017-07-02T10:23:49Z</time>
      </trkpt>
      <trkpt lat="42.38259" lon="0.15206">
        <ele>724.9</ele>
        <time>2017-07-02T10:23:51Z</time>
      </trkpt>
      <trkpt lat="42.38262" lon="0.15201">
        <ele>722.5</ele>
        <time>2017-07-02T10:23:53Z</time>
      </trkpt>
      <trkpt lat="42.38266" lon="0.15197">
        <ele>723</ele>
        <time>2017-07-02T10:23:55Z</time>
      </trkpt>
      <trkpt lat="42.38266" lon="0.15193">
        <ele>721.8</ele>
        <time>2017-07-02T10:23:58Z</time>
      </trkpt>
      <trkpt lat="42.38263" lon="0.15188">
        <ele>720.2</ele>
        <time>2017-07-02T10:24:00Z</time>
      </trkpt>
      <trkpt lat="42.3826" lon="0.15185">
        <ele>718.6</ele>
        <time>2017-07-02T10:24:01Z</time>
      </trkpt>
      <trkpt lat="42.38257" lon="0.15182">
        <ele>717.2</ele>
        <time>2017-07-02T10:24:02Z</time>
      </trkpt>
      <trkpt lat="42.38253" lon="0.1518">
        <ele>716.9</ele>
        <time>2017-07-02T10:24:03Z</time>
      </trkpt>
      <trkpt lat="42.38251" lon="0.15179">
        <ele>715.7</ele>
        <time>2017-07-02T10:24:04Z</time>
      </trkpt>
      <trkpt lat="42.38247" lon="0.15177">
        <ele>715.6</ele>
        <time>2017-07-02T10:24:06Z</time>
      </trkpt>
      <trkpt lat="42.38247" lon="0.15173">
        <ele>714.7</ele>
        <time>2017-07-02T10:24:16Z</time>
      </trkpt>
      <trkpt lat="42.38249" lon="0.15169">
        <ele>713.9</ele>
        <time>2017-07-02T10:24:21Z</time>
      </trkpt>
      <trkpt lat="42.38248" lon="0.15166">
        <ele>713</ele>
        <time>2017-07-02T10:24:26Z</time>
      </trkpt>
      <trkpt lat="42.38244" lon="0.15165">
        <ele>712.8</ele>
        <time>2017-07-02T10:24:28Z</time>
      </trkpt>
      <trkpt lat="42.38239" lon="0.15164">
        <ele>712.4</ele>
        <time>2017-07-02T10:24:30Z</time>
      </trkpt>
      <trkpt lat="42.38234" lon="0.15162">
        <ele>711.7</ele>
        <time>2017-07-02T10:24:32Z</time>
      </trkpt>
      <trkpt lat="42.38231" lon="0.15162">
        <ele>710</ele>
        <time>2017-07-02T10:24:33Z</time>
      </trkpt>
      <trkpt lat="42.38226" lon="0.15162">
        <ele>709.4</ele>
        <time>2017-07-02T10:24:35Z</time>
      </trkpt>
      <trkpt lat="42.38224" lon="0.15162">
        <ele>710</ele>
        <time>2017-07-02T10:24:36Z</time>
      </trkpt>
      <trkpt lat="42.38219" lon="0.15163">
        <ele>708.6</ele>
        <time>2017-07-02T10:24:38Z</time>
      </trkpt>
      <trkpt lat="42.38216" lon="0.15162">
        <ele>706.3</ele>
        <time>2017-07-02T10:24:40Z</time>
      </trkpt>
      <trkpt lat="42.38215" lon="0.15158">
        <ele>706.2</ele>
        <time>2017-07-02T10:24:42Z</time>
      </trkpt>
      <trkpt lat="42.38213" lon="0.15152">
        <ele>702.2</ele>
        <time>2017-07-02T10:24:44Z</time>
      </trkpt>
      <trkpt lat="42.3821" lon="0.15148">
        <ele>699.7</ele>
        <time>2017-07-02T10:24:46Z</time>
      </trkpt>
      <trkpt lat="42.38207" lon="0.15145">
        <ele>698.6</ele>
        <time>2017-07-02T10:24:48Z</time>
      </trkpt>
      <trkpt lat="42.38204" lon="0.15141">
        <ele>696.5</ele>
        <time>2017-07-02T10:24:50Z</time>
      </trkpt>
      <trkpt lat="42.382" lon="0.15137">
        <ele>694.8</ele>
        <time>2017-07-02T10:24:52Z</time>
      </trkpt>
      <trkpt lat="42.38196" lon="0.15135">
        <ele>693.2</ele>
        <time>2017-07-02T10:24:54Z</time>
      </trkpt>
      <trkpt lat="42.38193" lon="0.15132">
        <ele>691.7</ele>
        <time>2017-07-02T10:24:56Z</time>
      </trkpt>
      <trkpt lat="42.38192" lon="0.15127">
        <ele>690.6</ele>
        <time>2017-07-02T10:24:58Z</time>
      </trkpt>
      <trkpt lat="42.38193" lon="0.15123">
        <ele>689.5</ele>
        <time>2017-07-02T10:25:00Z</time>
      </trkpt>
      <trkpt lat="42.38194" lon="0.15118">
        <ele>688.5</ele>
        <time>2017-07-02T10:25:02Z</time>
      </trkpt>
      <trkpt lat="42.38193" lon="0.15114">
        <ele>687.7</ele>
        <time>2017-07-02T10:25:04Z</time>
      </trkpt>
      <trkpt lat="42.38192" lon="0.15109">
        <ele>686.9</ele>
        <time>2017-07-02T10:25:07Z</time>
      </trkpt>
      <trkpt lat="42.38194" lon="0.15104">
        <ele>686</ele>
        <time>2017-07-02T10:25:09Z</time>
      </trkpt>
      <trkpt lat="42.38194" lon="0.15099">
        <ele>685</ele>
        <time>2017-07-02T10:25:11Z</time>
      </trkpt>
      <trkpt lat="42.38192" lon="0.15096">
        <ele>683.9</ele>
        <time>2017-07-02T10:25:13Z</time>
      </trkpt>
      <trkpt lat="42.38189" lon="0.15093">
        <ele>683.6</ele>
        <time>2017-07-02T10:25:15Z</time>
      </trkpt>
      <trkpt lat="42.38185" lon="0.15091">
        <ele>682.1</ele>
        <time>2017-07-02T10:25:17Z</time>
      </trkpt>
      <trkpt lat="42.38182" lon="0.15089">
        <ele>680.8</ele>
        <time>2017-07-02T10:25:18Z</time>
      </trkpt>
      <trkpt lat="42.38178" lon="0.15087">
        <ele>679.9</ele>
        <time>2017-07-02T10:25:19Z</time>
      </trkpt>
      <trkpt lat="42.38173" lon="0.15087">
        <ele>679.5</ele>
        <time>2017-07-02T10:25:20Z</time>
      </trkpt>
      <trkpt lat="42.38169" lon="0.15088">
        <ele>679.1</ele>
        <time>2017-07-02T10:25:21Z</time>
      </trkpt>
      <trkpt lat="42.38166" lon="0.1509">
        <ele>679.5</ele>
        <time>2017-07-02T10:25:22Z</time>
      </trkpt>
      <trkpt lat="42.38163" lon="0.15092">
        <ele>678.7</ele>
        <time>2017-07-02T10:25:23Z</time>
      </trkpt>
      <trkpt lat="42.3816" lon="0.15093">
        <ele>678</ele>
        <time>2017-07-02T10:25:24Z</time>
      </trkpt>
      <trkpt lat="42.38156" lon="0.15092">
        <ele>677.1</ele>
        <time>2017-07-02T10:25:26Z</time>
      </trkpt>
      <trkpt lat="42.38154" lon="0.1509">
        <ele>676.4</ele>
        <time>2017-07-02T10:25:28Z</time>
      </trkpt>
      <trkpt lat="42.3815" lon="0.1509">
        <ele>675.7</ele>
        <time>2017-07-02T10:25:30Z</time>
      </trkpt>
      <trkpt lat="42.38147" lon="0.15089">
        <ele>674.8</ele>
        <time>2017-07-02T10:25:33Z</time>
      </trkpt>
      <trkpt lat="42.38144" lon="0.15089">
        <ele>674.1</ele>
        <time>2017-07-02T10:25:35Z</time>
      </trkpt>
      <trkpt lat="42.3814" lon="0.15092">
        <ele>673.1</ele>
        <time>2017-07-02T10:25:37Z</time>
      </trkpt>
      <trkpt lat="42.38136" lon="0.15092">
        <ele>672</ele>
        <time>2017-07-02T10:25:39Z</time>
      </trkpt>
      <trkpt lat="42.38131" lon="0.15089">
        <ele>671</ele>
        <time>2017-07-02T10:25:41Z</time>
      </trkpt>
      <trkpt lat="42.38128" lon="0.15087">
        <ele>670.4</ele>
        <time>2017-07-02T10:25:42Z</time>
      </trkpt>
      <trkpt lat="42.38125" lon="0.15085">
        <ele>669.4</ele>
        <time>2017-07-02T10:25:44Z</time>
      </trkpt>
      <trkpt lat="42.38121" lon="0.15086">
        <ele>668.5</ele>
        <time>2017-07-02T10:25:46Z</time>
      </trkpt>
      <trkpt lat="42.38118" lon="0.15088">
        <ele>667.5</ele>
        <time>2017-07-02T10:25:48Z</time>
      </trkpt>
      <trkpt lat="42.38114" lon="0.15088">
        <ele>666.2</ele>
        <time>2017-07-02T10:25:51Z</time>
      </trkpt>
      <trkpt lat="42.38114" lon="0.15084">
        <ele>665.2</ele>
        <time>2017-07-02T10:25:54Z</time>
      </trkpt>
      <trkpt lat="42.38116" lon="0.15079">
        <ele>663.7</ele>
        <time>2017-07-02T10:25:56Z</time>
      </trkpt>
      <trkpt lat="42.38116" lon="0.15074">
        <ele>662.6</ele>
        <time>2017-07-02T10:25:58Z</time>
      </trkpt>
      <trkpt lat="42.38113" lon="0.15071">
        <ele>661.8</ele>
        <time>2017-07-02T10:26:00Z</time>
      </trkpt>
      <trkpt lat="42.3811" lon="0.1507">
        <ele>661</ele>
        <time>2017-07-02T10:26:02Z</time>
      </trkpt>
      <trkpt lat="42.38105" lon="0.15071">
        <ele>660.1</ele>
        <time>2017-07-02T10:26:04Z</time>
      </trkpt>
      <trkpt lat="42.381" lon="0.15071">
        <ele>658.9</ele>
        <time>2017-07-02T10:26:06Z</time>
      </trkpt>
      <trkpt lat="42.38097" lon="0.15071">
        <ele>658.1</ele>
        <time>2017-07-02T10:26:08Z</time>
      </trkpt>
      <trkpt lat="42.38093" lon="0.15071">
        <ele>657.1</ele>
        <time>2017-07-02T10:26:10Z</time>
      </trkpt>
      <trkpt lat="42.38088" lon="0.15069">
        <ele>656.1</ele>
        <time>2017-07-02T10:26:12Z</time>
      </trkpt>
      <trkpt lat="42.38084" lon="0.15068">
        <ele>655.2</ele>
        <time>2017-07-02T10:26:14Z</time>
      </trkpt>
      <trkpt lat="42.38079" lon="0.15067">
        <ele>654.2</ele>
        <time>2017-07-02T10:26:16Z</time>
      </trkpt>
      <trkpt lat="42.38076" lon="0.15067">
        <ele>653.4</ele>
        <time>2017-07-02T10:26:18Z</time>
      </trkpt>
      <trkpt lat="42.38073" lon="0.15068">
        <ele>652.7</ele>
        <time>2017-07-02T10:26:19Z</time>
      </trkpt>
      <trkpt lat="42.3807" lon="0.15068">
        <ele>652</ele>
        <time>2017-07-02T10:26:20Z</time>
      </trkpt>
      <trkpt lat="42.38065" lon="0.15067">
        <ele>650.6</ele>
        <time>2017-07-02T10:26:22Z</time>
      </trkpt>
      <trkpt lat="42.38061" lon="0.15064">
        <ele>649.4</ele>
        <time>2017-07-02T10:26:24Z</time>
      </trkpt>
      <trkpt lat="42.38059" lon="0.15058">
        <ele>647.9</ele>
        <time>2017-07-02T10:26:26Z</time>
      </trkpt>
      <trkpt lat="42.38057" lon="0.15055">
        <ele>647.1</ele>
        <time>2017-07-02T10:26:27Z</time>
      </trkpt>
      <trkpt lat="42.38055" lon="0.15051">
        <ele>645.9</ele>
        <time>2017-07-02T10:26:29Z</time>
      </trkpt>
      <trkpt lat="42.38059" lon="0.15049">
        <ele>644.5</ele>
        <time>2017-07-02T10:26:39Z</time>
      </trkpt>
      <trkpt lat="42.38061" lon="0.15052">
        <ele>643.4</ele>
        <time>2017-07-02T10:27:09Z</time>
      </trkpt>
      <trkpt lat="42.38058" lon="0.15053">
        <ele>642.4</ele>
        <time>2017-07-02T10:27:18Z</time>
      </trkpt>
      <trkpt lat="42.38056" lon="0.1505">
        <ele>641.1</ele>
        <time>2017-07-02T10:27:23Z</time>
      </trkpt>
      <trkpt lat="42.38053" lon="0.15049">
        <ele>640.1</ele>
        <time>2017-07-02T10:27:27Z</time>
      </trkpt>
      <trkpt lat="42.38052" lon="0.15046">
        <ele>639.5</ele>
        <time>2017-07-02T10:27:32Z</time>
      </trkpt>
      <trkpt lat="42.38051" lon="0.15042">
        <ele>638.9</ele>
        <time>2017-07-02T10:27:37Z</time>
      </trkpt>
      <trkpt lat="42.38048" lon="0.15041">
        <ele>638.2</ele>
        <time>2017-07-02T10:27:44Z</time>
      </trkpt>
      <trkpt lat="42.38044" lon="0.15042">
        <ele>637.3</ele>
        <time>2017-07-02T10:27:55Z</time>
      </trkpt>
      <trkpt lat="42.38043" lon="0.15045">
        <ele>636.4</ele>
        <time>2017-07-02T10:28:03Z</time>
      </trkpt>
      <trkpt lat="42.3804" lon="0.15044">
        <ele>635.3</ele>
        <time>2017-07-02T10:28:26Z</time>
      </trkpt>
      <trkpt lat="42.38037" lon="0.15042">
        <ele>634.3</ele>
        <time>2017-07-02T10:28:31Z</time>
      </trkpt>
      <trkpt lat="42.38036" lon="0.15039">
        <ele>633.4</ele>
        <time>2017-07-02T10:28:37Z</time>
      </trkpt>
      <trkpt lat="42.38035" lon="0.15035">
        <ele>632.5</ele>
        <time>2017-07-02T10:28:42Z</time>
      </trkpt>
      <trkpt lat="42.38033" lon="0.15032">
        <ele>631.8</ele>
        <time>2017-07-02T10:28:46Z</time>
      </trkpt>
      <trkpt lat="42.38031" lon="0.15034">
        <ele>630.9</ele>
        <time>2017-07-02T10:28:54Z</time>
      </trkpt>
      <trkpt lat="42.3803" lon="0.15039">
        <ele>629.8</ele>
        <time>2017-07-02T10:28:56Z</time>
      </trkpt>
      <trkpt lat="42.3803" lon="0.15042">
        <ele>628.9</ele>
        <time>2017-07-02T10:28:57Z</time>
      </trkpt>
      <trkpt lat="42.3803" lon="0.15046">
        <ele>627.9</ele>
        <time>2017-07-02T10:28:58Z</time>
      </trkpt>
      <trkpt lat="42.38029" lon="0.1505">
        <ele>626.9</ele>
        <time>2017-07-02T10:28:59Z</time>
      </trkpt>
      <trkpt lat="42.38028" lon="0.15054">
        <ele>625.9</ele>
        <time>2017-07-02T10:29:00Z</time>
      </trkpt>
      <trkpt lat="42.38026" lon="0.15058">
        <ele>625</ele>
        <time>2017-07-02T10:29:01Z</time>
      </trkpt>
      <trkpt lat="42.38024" lon="0.15061">
        <ele>622.6</ele>
        <time>2017-07-02T10:29:02Z</time>
      </trkpt>
      <trkpt lat="42.38022" lon="0.15063">
        <ele>622.4</ele>
        <time>2017-07-02T10:29:03Z</time>
      </trkpt>
      <trkpt lat="42.38019" lon="0.15065">
        <ele>622.2</ele>
        <time>2017-07-02T10:29:04Z</time>
      </trkpt>
      <trkpt lat="42.38016" lon="0.15067">
        <ele>622.1</ele>
        <time>2017-07-02T10:29:05Z</time>
      </trkpt>
      <trkpt lat="42.38013" lon="0.15069">
        <ele>621.9</ele>
        <time>2017-07-02T10:29:06Z</time>
      </trkpt>
      <trkpt lat="42.38011" lon="0.15074">
        <ele>621.4</ele>
        <time>2017-07-02T10:29:08Z</time>
      </trkpt>
      <trkpt lat="42.38008" lon="0.1508">
        <ele>620.8</ele>
        <time>2017-07-02T10:29:10Z</time>
      </trkpt>
      <trkpt lat="42.38006" lon="0.15083">
        <ele>620.5</ele>
        <time>2017-07-02T10:29:11Z</time>
      </trkpt>
      <trkpt lat="42.38004" lon="0.15086">
        <ele>620.2</ele>
        <time>2017-07-02T10:29:12Z</time>
      </trkpt>
      <trkpt lat="42.38003" lon="0.15089">
        <ele>620</ele>
        <time>2017-07-02T10:29:13Z</time>
      </trkpt>
      <trkpt lat="42.38001" lon="0.15094">
        <ele>619.8</ele>
        <time>2017-07-02T10:29:15Z</time>
      </trkpt>
      <trkpt lat="42.37998" lon="0.15098">
        <ele>619.5</ele>
        <time>2017-07-02T10:29:17Z</time>
      </trkpt>
      <trkpt lat="42.37996" lon="0.15103">
        <ele>619</ele>
        <time>2017-07-02T10:29:19Z</time>
      </trkpt>
      <trkpt lat="42.37994" lon="0.15107">
        <ele>618.7</ele>
        <time>2017-07-02T10:29:20Z</time>
      </trkpt>
      <trkpt lat="42.37993" lon="0.1511">
        <ele>618.3</ele>
        <time>2017-07-02T10:29:21Z</time>
      </trkpt>
      <trkpt lat="42.37991" lon="0.15115">
        <ele>617.8</ele>
        <time>2017-07-02T10:29:23Z</time>
      </trkpt>
      <trkpt lat="42.37993" lon="0.15118">
        <ele>617.4</ele>
        <time>2017-07-02T10:29:31Z</time>
      </trkpt>
      <trkpt lat="42.37995" lon="0.15122">
        <ele>617</ele>
        <time>2017-07-02T10:29:36Z</time>
      </trkpt>
      <trkpt lat="42.37997" lon="0.15125">
        <ele>616.5</ele>
        <time>2017-07-02T10:29:42Z</time>
      </trkpt>
      <trkpt lat="42.37999" lon="0.15128">
        <ele>615.9</ele>
        <time>2017-07-02T10:29:51Z</time>
      </trkpt>
      <trkpt lat="42.38" lon="0.15131">
        <ele>615.3</ele>
        <time>2017-07-02T10:29:58Z</time>
      </trkpt>
      <trkpt lat="42.37998" lon="0.15133">
        <ele>614.6</ele>
        <time>2017-07-02T10:30:08Z</time>
      </trkpt>
      <trkpt lat="42.37995" lon="0.15135">
        <ele>613.7</ele>
        <time>2017-07-02T10:30:17Z</time>
      </trkpt>
      <trkpt lat="42.37992" lon="0.15138">
        <ele>612.6</ele>
        <time>2017-07-02T10:30:22Z</time>
      </trkpt>
      <trkpt lat="42.3799" lon="0.15141">
        <ele>610.1</ele>
        <time>2017-07-02T10:30:25Z</time>
      </trkpt>
      <trkpt lat="42.37989" lon="0.15147">
        <ele>609.2</ele>
        <time>2017-07-02T10:30:27Z</time>
      </trkpt>
      <trkpt lat="42.37989" lon="0.15152">
        <ele>608.3</ele>
        <time>2017-07-02T10:30:29Z</time>
      </trkpt>
      <trkpt lat="42.37991" lon="0.15156">
        <ele>608</ele>
        <time>2017-07-02T10:30:33Z</time>
      </trkpt>
      <trkpt lat="42.37991" lon="0.15161">
        <ele>607.8</ele>
        <time>2017-07-02T10:30:38Z</time>
      </trkpt>
      <trkpt lat="42.3799" lon="0.15164">
        <ele>607.5</ele>
        <time>2017-07-02T10:30:41Z</time>
      </trkpt>
      <trkpt lat="42.37989" lon="0.15169">
        <ele>607.3</ele>
        <time>2017-07-02T10:30:43Z</time>
      </trkpt>
      <trkpt lat="42.3799" lon="0.15173">
        <ele>606.9</ele>
        <time>2017-07-02T10:30:46Z</time>
      </trkpt>
      <trkpt lat="42.37991" lon="0.15177">
        <ele>606.5</ele>
        <time>2017-07-02T10:30:49Z</time>
      </trkpt>
      <trkpt lat="42.37991" lon="0.15183">
        <ele>606</ele>
        <time>2017-07-02T10:30:51Z</time>
      </trkpt>
      <trkpt lat="42.37989" lon="0.1519">
        <ele>605.3</ele>
        <time>2017-07-02T10:30:53Z</time>
      </trkpt>
      <trkpt lat="42.37988" lon="0.15196">
        <ele>604.7</ele>
        <time>2017-07-02T10:30:55Z</time>
      </trkpt>
      <trkpt lat="42.37988" lon="0.15202">
        <ele>604.2</ele>
        <time>2017-07-02T10:30:57Z</time>
      </trkpt>
      <trkpt lat="42.37987" lon="0.15208">
        <ele>603.7</ele>
        <time>2017-07-02T10:30:59Z</time>
      </trkpt>
      <trkpt lat="42.37986" lon="0.15213">
        <ele>603.3</ele>
        <time>2017-07-02T10:31:01Z</time>
      </trkpt>
      <trkpt lat="42.37985" lon="0.15219">
        <ele>603</ele>
        <time>2017-07-02T10:31:03Z</time>
      </trkpt>
      <trkpt lat="42.37986" lon="0.15226">
        <ele>602.9</ele>
        <time>2017-07-02T10:31:05Z</time>
      </trkpt>
      <trkpt lat="42.37986" lon="0.15231">
        <ele>602.7</ele>
        <time>2017-07-02T10:31:06Z</time>
      </trkpt>
      <trkpt lat="42.37986" lon="0.15235">
        <ele>602.6</ele>
        <time>2017-07-02T10:31:07Z</time>
      </trkpt>
      <trkpt lat="42.37985" lon="0.15238">
        <ele>602.3</ele>
        <time>2017-07-02T10:31:08Z</time>
      </trkpt>
      <trkpt lat="42.37984" lon="0.15242">
        <ele>602.2</ele>
        <time>2017-07-02T10:31:09Z</time>
      </trkpt>
      <trkpt lat="42.37982" lon="0.15245">
        <ele>602</ele>
        <time>2017-07-02T10:31:10Z</time>
      </trkpt>
      <trkpt lat="42.37979" lon="0.15248">
        <ele>601.6</ele>
        <time>2017-07-02T10:31:12Z</time>
      </trkpt>
      <trkpt lat="42.37975" lon="0.15249">
        <ele>601.2</ele>
        <time>2017-07-02T10:31:14Z</time>
      </trkpt>
      <trkpt lat="42.37971" lon="0.1525">
        <ele>600.6</ele>
        <time>2017-07-02T10:31:16Z</time>
      </trkpt>
      <trkpt lat="42.37967" lon="0.15253">
        <ele>600.1</ele>
        <time>2017-07-02T10:31:18Z</time>
      </trkpt>
      <trkpt lat="42.37963" lon="0.15258">
        <ele>599.3</ele>
        <time>2017-07-02T10:31:20Z</time>
      </trkpt>
      <trkpt lat="42.37961" lon="0.1526">
        <ele>598.8</ele>
        <time>2017-07-02T10:31:21Z</time>
      </trkpt>
      <trkpt lat="42.37958" lon="0.15262">
        <ele>598.2</ele>
        <time>2017-07-02T10:31:22Z</time>
      </trkpt>
      <trkpt lat="42.37954" lon="0.15264">
        <ele>597.2</ele>
        <time>2017-07-02T10:31:23Z</time>
      </trkpt>
      <trkpt lat="42.3795" lon="0.15266">
        <ele>595.8</ele>
        <time>2017-07-02T10:31:24Z</time>
      </trkpt>
      <trkpt lat="42.37947" lon="0.15268">
        <ele>595.5</ele>
        <time>2017-07-02T10:31:25Z</time>
      </trkpt>
      <trkpt lat="42.37944" lon="0.1527">
        <ele>595.3</ele>
        <time>2017-07-02T10:31:26Z</time>
      </trkpt>
      <trkpt lat="42.37942" lon="0.15272">
        <ele>595.1</ele>
        <time>2017-07-02T10:31:27Z</time>
      </trkpt>
      <trkpt lat="42.37939" lon="0.15277">
        <ele>594.6</ele>
        <time>2017-07-02T10:31:29Z</time>
      </trkpt>
      <trkpt lat="42.37937" lon="0.15281">
        <ele>594.2</ele>
        <time>2017-07-02T10:31:30Z</time>
      </trkpt>
      <trkpt lat="42.37936" lon="0.15285">
        <ele>593.8</ele>
        <time>2017-07-02T10:31:31Z</time>
      </trkpt>
      <trkpt lat="42.37934" lon="0.15289">
        <ele>593.4</ele>
        <time>2017-07-02T10:31:32Z</time>
      </trkpt>
      <trkpt lat="42.37933" lon="0.15293">
        <ele>593</ele>
        <time>2017-07-02T10:31:33Z</time>
      </trkpt>
      <trkpt lat="42.37931" lon="0.15296">
        <ele>592.6</ele>
        <time>2017-07-02T10:31:34Z</time>
      </trkpt>
      <trkpt lat="42.37929" lon="0.15299">
        <ele>592.2</ele>
        <time>2017-07-02T10:31:35Z</time>
      </trkpt>
      <trkpt lat="42.37929" lon="0.15305">
        <ele>591.6</ele>
        <time>2017-07-02T10:31:37Z</time>
      </trkpt>
      <trkpt lat="42.37932" lon="0.1531">
        <ele>590.8</ele>
        <time>2017-07-02T10:31:39Z</time>
      </trkpt>
      <trkpt lat="42.37934" lon="0.15313">
        <ele>590.4</ele>
        <time>2017-07-02T10:31:40Z</time>
      </trkpt>
      <trkpt lat="42.37936" lon="0.15318">
        <ele>589.9</ele>
        <time>2017-07-02T10:31:41Z</time>
      </trkpt>
      <trkpt lat="42.37938" lon="0.15323">
        <ele>589.3</ele>
        <time>2017-07-02T10:31:42Z</time>
      </trkpt>
      <trkpt lat="42.3794" lon="0.15327">
        <ele>588.7</ele>
        <time>2017-07-02T10:31:43Z</time>
      </trkpt>
      <trkpt lat="42.3794" lon="0.15332">
        <ele>588.2</ele>
        <time>2017-07-02T10:31:44Z</time>
      </trkpt>
      <trkpt lat="42.3794" lon="0.15336">
        <ele>587.7</ele>
        <time>2017-07-02T10:31:45Z</time>
      </trkpt>
      <trkpt lat="42.37938" lon="0.15339">
        <ele>587.2</ele>
        <time>2017-07-02T10:31:46Z</time>
      </trkpt>
      <trkpt lat="42.37937" lon="0.15343">
        <ele>586.7</ele>
        <time>2017-07-02T10:31:47Z</time>
      </trkpt>
      <trkpt lat="42.37934" lon="0.15346">
        <ele>586.1</ele>
        <time>2017-07-02T10:31:48Z</time>
      </trkpt>
      <trkpt lat="42.37931" lon="0.15349">
        <ele>585.4</ele>
        <time>2017-07-02T10:31:49Z</time>
      </trkpt>
      <trkpt lat="42.37928" lon="0.15352">
        <ele>584.8</ele>
        <time>2017-07-02T10:31:50Z</time>
      </trkpt>
      <trkpt lat="42.37925" lon="0.15353">
        <ele>584.3</ele>
        <time>2017-07-02T10:31:51Z</time>
      </trkpt>
      <trkpt lat="42.37922" lon="0.15355">
        <ele>583.8</ele>
        <time>2017-07-02T10:31:52Z</time>
      </trkpt>
      <trkpt lat="42.37919" lon="0.15357">
        <ele>583.3</ele>
        <time>2017-07-02T10:31:53Z</time>
      </trkpt>
      <trkpt lat="42.37917" lon="0.15359">
        <ele>583</ele>
        <time>2017-07-02T10:31:54Z</time>
      </trkpt>
      <trkpt lat="42.37916" lon="0.15364">
        <ele>582.5</ele>
        <time>2017-07-02T10:31:55Z</time>
      </trkpt>
      <trkpt lat="42.37915" lon="0.1537">
        <ele>581.9</ele>
        <time>2017-07-02T10:31:56Z</time>
      </trkpt>
      <trkpt lat="42.37915" lon="0.15376">
        <ele>581.4</ele>
        <time>2017-07-02T10:31:57Z</time>
      </trkpt>
      <trkpt lat="42.37914" lon="0.15382">
        <ele>580.9</ele>
        <time>2017-07-02T10:31:58Z</time>
      </trkpt>
      <trkpt lat="42.37912" lon="0.15387">
        <ele>580.3</ele>
        <time>2017-07-02T10:31:59Z</time>
      </trkpt>
      <trkpt lat="42.37909" lon="0.15391">
        <ele>579.7</ele>
        <time>2017-07-02T10:32:00Z</time>
      </trkpt>
      <trkpt lat="42.37905" lon="0.15393">
        <ele>578.9</ele>
        <time>2017-07-02T10:32:01Z</time>
      </trkpt>
      <trkpt lat="42.37901" lon="0.15392">
        <ele>578.1</ele>
        <time>2017-07-02T10:32:02Z</time>
      </trkpt>
      <trkpt lat="42.37898" lon="0.1539">
        <ele>577.4</ele>
        <time>2017-07-02T10:32:03Z</time>
      </trkpt>
      <trkpt lat="42.37895" lon="0.15387">
        <ele>576.7</ele>
        <time>2017-07-02T10:32:04Z</time>
      </trkpt>
      <trkpt lat="42.37892" lon="0.15384">
        <ele>576.2</ele>
        <time>2017-07-02T10:32:06Z</time>
      </trkpt>
      <trkpt lat="42.37889" lon="0.15381">
        <ele>575.9</ele>
        <time>2017-07-02T10:32:08Z</time>
      </trkpt>
      <trkpt lat="42.37887" lon="0.15378">
        <ele>575.6</ele>
        <time>2017-07-02T10:32:10Z</time>
      </trkpt>
      <trkpt lat="42.37884" lon="0.15376">
        <ele>575</ele>
        <time>2017-07-02T10:32:12Z</time>
      </trkpt>
      <trkpt lat="42.37882" lon="0.15375">
        <ele>574.4</ele>
        <time>2017-07-02T10:32:14Z</time>
      </trkpt>
      <trkpt lat="42.37879" lon="0.15372">
        <ele>573.9</ele>
        <time>2017-07-02T10:32:16Z</time>
      </trkpt>
      <trkpt lat="42.37876" lon="0.1537">
        <ele>573.1</ele>
        <time>2017-07-02T10:32:18Z</time>
      </trkpt>
      <trkpt lat="42.37872" lon="0.15368">
        <ele>572.3</ele>
        <time>2017-07-02T10:32:20Z</time>
      </trkpt>
      <trkpt lat="42.37868" lon="0.15366">
        <ele>571.4</ele>
        <time>2017-07-02T10:32:22Z</time>
      </trkpt>
      <trkpt lat="42.37863" lon="0.15362">
        <ele>570.2</ele>
        <time>2017-07-02T10:32:24Z</time>
      </trkpt>
      <trkpt lat="42.37859" lon="0.15361">
        <ele>569.3</ele>
        <time>2017-07-02T10:32:25Z</time>
      </trkpt>
      <trkpt lat="42.37854" lon="0.1536">
        <ele>568.3</ele>
        <time>2017-07-02T10:32:26Z</time>
      </trkpt>
      <trkpt lat="42.3785" lon="0.1536">
        <ele>567.2</ele>
        <time>2017-07-02T10:32:27Z</time>
      </trkpt>
      <trkpt lat="42.37846" lon="0.15361">
        <ele>566.2</ele>
        <time>2017-07-02T10:32:28Z</time>
      </trkpt>
      <trkpt lat="42.37841" lon="0.15363">
        <ele>565</ele>
        <time>2017-07-02T10:32:30Z</time>
      </trkpt>
      <trkpt lat="42.37837" lon="0.15363">
        <ele>564.2</ele>
        <time>2017-07-02T10:32:32Z</time>
      </trkpt>
      <trkpt lat="42.37833" lon="0.15362">
        <ele>563.4</ele>
        <time>2017-07-02T10:32:34Z</time>
      </trkpt>
      <trkpt lat="42.37828" lon="0.15361">
        <ele>562.5</ele>
        <time>2017-07-02T10:32:36Z</time>
      </trkpt>
      <trkpt lat="42.37825" lon="0.1536">
        <ele>561.9</ele>
        <time>2017-07-02T10:32:37Z</time>
      </trkpt>
      <trkpt lat="42.37822" lon="0.15359">
        <ele>561.4</ele>
        <time>2017-07-02T10:32:38Z</time>
      </trkpt>
      <trkpt lat="42.37819" lon="0.15358">
        <ele>560.8</ele>
        <time>2017-07-02T10:32:39Z</time>
      </trkpt>
      <trkpt lat="42.37816" lon="0.15355">
        <ele>560.2</ele>
        <time>2017-07-02T10:32:40Z</time>
      </trkpt>
      <trkpt lat="42.37813" lon="0.15353">
        <ele>559.6</ele>
        <time>2017-07-02T10:32:41Z</time>
      </trkpt>
      <trkpt lat="42.37808" lon="0.1535">
        <ele>558.6</ele>
        <time>2017-07-02T10:32:43Z</time>
      </trkpt>
      <trkpt lat="42.37806" lon="0.15348">
        <ele>558.1</ele>
        <time>2017-07-02T10:32:44Z</time>
      </trkpt>
      <trkpt lat="42.37804" lon="0.15345">
        <ele>557.6</ele>
        <time>2017-07-02T10:32:45Z</time>
      </trkpt>
      <trkpt lat="42.37803" lon="0.1534">
        <ele>557</ele>
        <time>2017-07-02T10:32:46Z</time>
      </trkpt>
      <trkpt lat="42.37802" lon="0.15336">
        <ele>556.5</ele>
        <time>2017-07-02T10:32:47Z</time>
      </trkpt>
      <trkpt lat="42.378" lon="0.15333">
        <ele>555.9</ele>
        <time>2017-07-02T10:32:48Z</time>
      </trkpt>
      <trkpt lat="42.37799" lon="0.1533">
        <ele>555.4</ele>
        <time>2017-07-02T10:32:49Z</time>
      </trkpt>
      <trkpt lat="42.37797" lon="0.15326">
        <ele>554.8</ele>
        <time>2017-07-02T10:32:50Z</time>
      </trkpt>
      <trkpt lat="42.37795" lon="0.15323">
        <ele>554.1</ele>
        <time>2017-07-02T10:32:51Z</time>
      </trkpt>
      <trkpt lat="42.37793" lon="0.15319">
        <ele>553.1</ele>
        <time>2017-07-02T10:32:52Z</time>
      </trkpt>
      <trkpt lat="42.37791" lon="0.15316">
        <ele>550.4</ele>
        <time>2017-07-02T10:32:54Z</time>
      </trkpt>
      <trkpt lat="42.37789" lon="0.15314">
        <ele>550</ele>
        <time>2017-07-02T10:32:57Z</time>
      </trkpt>
      <trkpt lat="42.37786" lon="0.15311">
        <ele>549.8</ele>
        <time>2017-07-02T10:33:02Z</time>
      </trkpt>
      <trkpt lat="42.37779" lon="0.15308">
        <ele>549.4</ele>
        <time>2017-07-02T10:33:30Z</time>
      </trkpt>
      <trkpt lat="42.37775" lon="0.15311">
        <ele>549.1</ele>
        <time>2017-07-02T10:33:32Z</time>
      </trkpt>
      <trkpt lat="42.37772" lon="0.15316">
        <ele>548.7</ele>
        <time>2017-07-02T10:33:34Z</time>
      </trkpt>
      <trkpt lat="42.37768" lon="0.15321">
        <ele>548.2</ele>
        <time>2017-07-02T10:33:36Z</time>
      </trkpt>
      <trkpt lat="42.37766" lon="0.15324">
        <ele>548</ele>
        <time>2017-07-02T10:33:37Z</time>
      </trkpt>
      <trkpt lat="42.37764" lon="0.15327">
        <ele>547.8</ele>
        <time>2017-07-02T10:33:38Z</time>
      </trkpt>
      <trkpt lat="42.37762" lon="0.15329">
        <ele>547.7</ele>
        <time>2017-07-02T10:33:39Z</time>
      </trkpt>
      <trkpt lat="42.37759" lon="0.15331">
        <ele>547.6</ele>
        <time>2017-07-02T10:33:40Z</time>
      </trkpt>
      <trkpt lat="42.37756" lon="0.15334">
        <ele>547.4</ele>
        <time>2017-07-02T10:33:41Z</time>
      </trkpt>
      <trkpt lat="42.37753" lon="0.15337">
        <ele>547.3</ele>
        <time>2017-07-02T10:33:42Z</time>
      </trkpt>
      <trkpt lat="42.37749" lon="0.15339">
        <ele>547.1</ele>
        <time>2017-07-02T10:33:43Z</time>
      </trkpt>
      <trkpt lat="42.37746" lon="0.15342">
        <ele>547</ele>
        <time>2017-07-02T10:33:44Z</time>
      </trkpt>
      <trkpt lat="42.37742" lon="0.15345">
        <ele>546.9</ele>
        <time>2017-07-02T10:33:45Z</time>
      </trkpt>
      <trkpt lat="42.37736" lon="0.15349">
        <ele>546.7</ele>
        <time>2017-07-02T10:33:46Z</time>
      </trkpt>
      <trkpt lat="42.37731" lon="0.15352">
        <ele>546.5</ele>
        <time>2017-07-02T10:33:47Z</time>
      </trkpt>
      <trkpt lat="42.37728" lon="0.15354">
        <ele>546.2</ele>
        <time>2017-07-02T10:33:48Z</time>
      </trkpt>
      <trkpt lat="42.37722" lon="0.15358">
        <ele>545.7</ele>
        <time>2017-07-02T10:33:50Z</time>
      </trkpt>
      <trkpt lat="42.37717" lon="0.15361">
        <ele>545.4</ele>
        <time>2017-07-02T10:33:51Z</time>
      </trkpt>
      <trkpt lat="42.37713" lon="0.15364">
        <ele>545.2</ele>
        <time>2017-07-02T10:33:52Z</time>
      </trkpt>
      <trkpt lat="42.37709" lon="0.15366">
        <ele>544.9</ele>
        <time>2017-07-02T10:33:53Z</time>
      </trkpt>
      <trkpt lat="42.37705" lon="0.15368">
        <ele>544.8</ele>
        <time>2017-07-02T10:33:54Z</time>
      </trkpt>
      <trkpt lat="42.37699" lon="0.15371">
        <ele>544.5</ele>
        <time>2017-07-02T10:33:55Z</time>
      </trkpt>
      <trkpt lat="42.37694" lon="0.15372">
        <ele>544.3</ele>
        <time>2017-07-02T10:33:56Z</time>
      </trkpt>
      <trkpt lat="42.3769" lon="0.15374">
        <ele>544</ele>
        <time>2017-07-02T10:33:57Z</time>
      </trkpt>
      <trkpt lat="42.37687" lon="0.15376">
        <ele>543.7</ele>
        <time>2017-07-02T10:33:58Z</time>
      </trkpt>
      <trkpt lat="42.37684" lon="0.15378">
        <ele>543.4</ele>
        <time>2017-07-02T10:34:00Z</time>
      </trkpt>
      <trkpt lat="42.3768" lon="0.1538">
        <ele>543.1</ele>
        <time>2017-07-02T10:34:02Z</time>
      </trkpt>
      <trkpt lat="42.37677" lon="0.15381">
        <ele>543</ele>
        <time>2017-07-02T10:34:04Z</time>
      </trkpt>
      <trkpt lat="42.37673" lon="0.1538">
        <ele>542.7</ele>
        <time>2017-07-02T10:34:07Z</time>
      </trkpt>
      <trkpt lat="42.37669" lon="0.15376">
        <ele>542.6</ele>
        <time>2017-07-02T10:34:09Z</time>
      </trkpt>
      <trkpt lat="42.37666" lon="0.1537">
        <ele>542.4</ele>
        <time>2017-07-02T10:34:11Z</time>
      </trkpt>
      <trkpt lat="42.37664" lon="0.15367">
        <ele>542.3</ele>
        <time>2017-07-02T10:34:12Z</time>
      </trkpt>
      <trkpt lat="42.37662" lon="0.15364">
        <ele>542.1</ele>
        <time>2017-07-02T10:34:13Z</time>
      </trkpt>
      <trkpt lat="42.3766" lon="0.15361">
        <ele>542</ele>
        <time>2017-07-02T10:34:14Z</time>
      </trkpt>
      <trkpt lat="42.37657" lon="0.15355">
        <ele>541.6</ele>
        <time>2017-07-02T10:34:16Z</time>
      </trkpt>
      <trkpt lat="42.37654" lon="0.1535">
        <ele>541.3</ele>
        <time>2017-07-02T10:34:18Z</time>
      </trkpt>
      <trkpt lat="42.37653" lon="0.15347">
        <ele>541.1</ele>
        <time>2017-07-02T10:34:19Z</time>
      </trkpt>
      <trkpt lat="42.37652" lon="0.15343">
        <ele>540.9</ele>
        <time>2017-07-02T10:34:20Z</time>
      </trkpt>
      <trkpt lat="42.37651" lon="0.15339">
        <ele>540.8</ele>
        <time>2017-07-02T10:34:21Z</time>
      </trkpt>
      <trkpt lat="42.37651" lon="0.15335">
        <ele>540.7</ele>
        <time>2017-07-02T10:34:22Z</time>
      </trkpt>
      <trkpt lat="42.37654" lon="0.15331">
        <ele>540.6</ele>
        <time>2017-07-02T10:34:23Z</time>
      </trkpt>
      <trkpt lat="42.37656" lon="0.15326">
        <ele>540.5</ele>
        <time>2017-07-02T10:34:25Z</time>
      </trkpt>
      <trkpt lat="42.37661" lon="0.15322">
        <ele>540.4</ele>
        <time>2017-07-02T10:34:27Z</time>
      </trkpt>
      <trkpt lat="42.37664" lon="0.15317">
        <ele>540.3</ele>
        <time>2017-07-02T10:34:29Z</time>
      </trkpt>
      <trkpt lat="42.37666" lon="0.15311">
        <ele>540.3</ele>
        <time>2017-07-02T10:34:31Z</time>
      </trkpt>
      <trkpt lat="42.37667" lon="0.15305">
        <ele>540.2</ele>
        <time>2017-07-02T10:34:33Z</time>
      </trkpt>
      <trkpt lat="42.37665" lon="0.15299">
        <ele>540.2</ele>
        <time>2017-07-02T10:34:35Z</time>
      </trkpt>
      <trkpt lat="42.37661" lon="0.15295">
        <ele>540.2</ele>
        <time>2017-07-02T10:34:37Z</time>
      </trkpt>
      <trkpt lat="42.37658" lon="0.15293">
        <ele>540.2</ele>
        <time>2017-07-02T10:34:39Z</time>
      </trkpt>
      <trkpt lat="42.37654" lon="0.15292">
        <ele>540.1</ele>
        <time>2017-07-02T10:34:41Z</time>
      </trkpt>
      <trkpt lat="42.37651" lon="0.15291">
        <ele>540.1</ele>
        <time>2017-07-02T10:34:43Z</time>
      </trkpt>
      <trkpt lat="42.37648" lon="0.1529">
        <ele>540.1</ele>
        <time>2017-07-02T10:34:45Z</time>
      </trkpt>
      <trkpt lat="42.37644" lon="0.15288">
        <ele>540.1</ele>
        <time>2017-07-02T10:34:47Z</time>
      </trkpt>
      <trkpt lat="42.37639" lon="0.15286">
        <ele>540.1</ele>
        <time>2017-07-02T10:34:49Z</time>
      </trkpt>
      <trkpt lat="42.37633" lon="0.15284">
        <ele>540</ele>
        <time>2017-07-02T10:34:51Z</time>
      </trkpt>
      <trkpt lat="42.37631" lon="0.15283">
        <ele>540</ele>
        <time>2017-07-02T10:34:52Z</time>
      </trkpt>
      <trkpt lat="42.37628" lon="0.15282">
        <ele>540</ele>
        <time>2017-07-02T10:34:53Z</time>
      </trkpt>
      <trkpt lat="42.37625" lon="0.15281">
        <ele>540</ele>
        <time>2017-07-02T10:34:54Z</time>
      </trkpt>
      <trkpt lat="42.3762" lon="0.1528">
        <ele>540</ele>
        <time>2017-07-02T10:34:56Z</time>
      </trkpt>
      <trkpt lat="42.37615" lon="0.15279">
        <ele>540</ele>
        <time>2017-07-02T10:34:58Z</time>
      </trkpt>
      <trkpt lat="42.37612" lon="0.15278">
        <ele>540</ele>
        <time>2017-07-02T10:34:59Z</time>
      </trkpt>
      <trkpt lat="42.37609" lon="0.15278">
        <ele>539.9</ele>
        <time>2017-07-02T10:35:00Z</time>
      </trkpt>
      <trkpt lat="42.37604" lon="0.15275">
        <ele>539.9</ele>
        <time>2017-07-02T10:35:02Z</time>
      </trkpt>
      <trkpt lat="42.37602" lon="0.15274">
        <ele>539.9</ele>
        <time>2017-07-02T10:35:03Z</time>
      </trkpt>
      <trkpt lat="42.37597" lon="0.15271">
        <ele>539.9</ele>
        <time>2017-07-02T10:35:05Z</time>
      </trkpt>
      <trkpt lat="42.37593" lon="0.15269">
        <ele>539.8</ele>
        <time>2017-07-02T10:35:07Z</time>
      </trkpt>
      <trkpt lat="42.37588" lon="0.15267">
        <ele>539.8</ele>
        <time>2017-07-02T10:35:09Z</time>
      </trkpt>
      <trkpt lat="42.37584" lon="0.15266">
        <ele>539.8</ele>
        <time>2017-07-02T10:35:11Z</time>
      </trkpt>
      <trkpt lat="42.3758" lon="0.15265">
        <ele>539.8</ele>
        <time>2017-07-02T10:35:12Z</time>
      </trkpt>
      <trkpt lat="42.37577" lon="0.15264">
        <ele>539.8</ele>
        <time>2017-07-02T10:35:13Z</time>
      </trkpt>
      <trkpt lat="42.37575" lon="0.15263">
        <ele>539.7</ele>
        <time>2017-07-02T10:35:14Z</time>
      </trkpt>
      <trkpt lat="42.37572" lon="0.15262">
        <ele>539.7</ele>
        <time>2017-07-02T10:35:15Z</time>
      </trkpt>
      <trkpt lat="42.37569" lon="0.1526">
        <ele>539.6</ele>
        <time>2017-07-02T10:35:16Z</time>
      </trkpt>
      <trkpt lat="42.37566" lon="0.15259">
        <ele>539.5</ele>
        <time>2017-07-02T10:35:17Z</time>
      </trkpt>
      <trkpt lat="42.37563" lon="0.15259">
        <ele>539.4</ele>
        <time>2017-07-02T10:35:18Z</time>
      </trkpt>
      <trkpt lat="42.3756" lon="0.15256">
        <ele>539.3</ele>
        <time>2017-07-02T10:35:21Z</time>
      </trkpt>
      <trkpt lat="42.37557" lon="0.15258">
        <ele>539.2</ele>
        <time>2017-07-02T10:35:25Z</time>
      </trkpt>
      <trkpt lat="42.37557" lon="0.15263">
        <ele>539</ele>
        <time>2017-07-02T10:35:26Z</time>
      </trkpt>
      <trkpt lat="42.37557" lon="0.15268">
        <ele>538.8</ele>
        <time>2017-07-02T10:35:27Z</time>
      </trkpt>
      <trkpt lat="42.37557" lon="0.15272">
        <ele>538.5</ele>
        <time>2017-07-02T10:35:28Z</time>
      </trkpt>
      <trkpt lat="42.37557" lon="0.15276">
        <ele>538.3</ele>
        <time>2017-07-02T10:35:29Z</time>
      </trkpt>
      <trkpt lat="42.37557" lon="0.1528">
        <ele>538</ele>
        <time>2017-07-02T10:35:30Z</time>
      </trkpt>
      <trkpt lat="42.37555" lon="0.15283">
        <ele>537.7</ele>
        <time>2017-07-02T10:35:31Z</time>
      </trkpt>
      <trkpt lat="42.37553" lon="0.15286">
        <ele>537.4</ele>
        <time>2017-07-02T10:35:32Z</time>
      </trkpt>
      <trkpt lat="42.3755" lon="0.15288">
        <ele>537</ele>
        <time>2017-07-02T10:35:33Z</time>
      </trkpt>
      <trkpt lat="42.37547" lon="0.1529">
        <ele>536.6</ele>
        <time>2017-07-02T10:35:34Z</time>
      </trkpt>
      <trkpt lat="42.37544" lon="0.1529">
        <ele>536</ele>
        <time>2017-07-02T10:35:35Z</time>
      </trkpt>
      <trkpt lat="42.37541" lon="0.1529">
        <ele>536</ele>
        <time>2017-07-02T10:35:36Z</time>
      </trkpt>
      <trkpt lat="42.37536" lon="0.15291">
        <ele>536</ele>
        <time>2017-07-02T10:35:37Z</time>
      </trkpt>
      <trkpt lat="42.37532" lon="0.15292">
        <ele>536</ele>
        <time>2017-07-02T10:35:38Z</time>
      </trkpt>
      <trkpt lat="42.37526" lon="0.15293">
        <ele>536</ele>
        <time>2017-07-02T10:35:39Z</time>
      </trkpt>
      <trkpt lat="42.37521" lon="0.15294">
        <ele>535.8</ele>
        <time>2017-07-02T10:35:40Z</time>
      </trkpt>
      <trkpt lat="42.37516" lon="0.15294">
        <ele>534.8</ele>
        <time>2017-07-02T10:35:41Z</time>
      </trkpt>
      <trkpt lat="42.37511" lon="0.15295">
        <ele>533.8</ele>
        <time>2017-07-02T10:35:42Z</time>
      </trkpt>
      <trkpt lat="42.37508" lon="0.15294">
        <ele>533</ele>
        <time>2017-07-02T10:35:43Z</time>
      </trkpt>
      <trkpt lat="42.37504" lon="0.15293">
        <ele>532.3</ele>
        <time>2017-07-02T10:35:45Z</time>
      </trkpt>
      <trkpt lat="42.37501" lon="0.15291">
        <ele>531.7</ele>
        <time>2017-07-02T10:35:46Z</time>
      </trkpt>
      <trkpt lat="42.37499" lon="0.15289">
        <ele>531</ele>
        <time>2017-07-02T10:35:47Z</time>
      </trkpt>
      <trkpt lat="42.37497" lon="0.15284">
        <ele>530.6</ele>
        <time>2017-07-02T10:35:48Z</time>
      </trkpt>
      <trkpt lat="42.37496" lon="0.15279">
        <ele>530.9</ele>
        <time>2017-07-02T10:35:49Z</time>
      </trkpt>
      <trkpt lat="42.37493" lon="0.15275">
        <ele>531.2</ele>
        <time>2017-07-02T10:35:50Z</time>
      </trkpt>
      <trkpt lat="42.37489" lon="0.1527">
        <ele>531.6</ele>
        <time>2017-07-02T10:35:51Z</time>
      </trkpt>
      <trkpt lat="42.37488" lon="0.15265">
        <ele>531.9</ele>
        <time>2017-07-02T10:35:52Z</time>
      </trkpt>
      <trkpt lat="42.37486" lon="0.15259">
        <ele>532.2</ele>
        <time>2017-07-02T10:35:53Z</time>
      </trkpt>
      <trkpt lat="42.37484" lon="0.15254">
        <ele>532.5</ele>
        <time>2017-07-02T10:35:54Z</time>
      </trkpt>
      <trkpt lat="42.37482" lon="0.15249">
        <ele>532.8</ele>
        <time>2017-07-02T10:35:55Z</time>
      </trkpt>
      <trkpt lat="42.3748" lon="0.15244">
        <ele>533.1</ele>
        <time>2017-07-02T10:35:56Z</time>
      </trkpt>
      <trkpt lat="42.37478" lon="0.15239">
        <ele>533.3</ele>
        <time>2017-07-02T10:35:57Z</time>
      </trkpt>
      <trkpt lat="42.37474" lon="0.15234">
        <ele>533.5</ele>
        <time>2017-07-02T10:35:58Z</time>
      </trkpt>
      <trkpt lat="42.37471" lon="0.15229">
        <ele>533.8</ele>
        <time>2017-07-02T10:35:59Z</time>
      </trkpt>
      <trkpt lat="42.37469" lon="0.15223">
        <ele>534</ele>
        <time>2017-07-02T10:36:00Z</time>
      </trkpt>
      <trkpt lat="42.37468" lon="0.15218">
        <ele>534.2</ele>
        <time>2017-07-02T10:36:01Z</time>
      </trkpt>
      <trkpt lat="42.37467" lon="0.15212">
        <ele>534.4</ele>
        <time>2017-07-02T10:36:02Z</time>
      </trkpt>
      <trkpt lat="42.37465" lon="0.15207">
        <ele>534.5</ele>
        <time>2017-07-02T10:36:03Z</time>
      </trkpt>
      <trkpt lat="42.37465" lon="0.15202">
        <ele>534.7</ele>
        <time>2017-07-02T10:36:04Z</time>
      </trkpt>
      <trkpt lat="42.37463" lon="0.15197">
        <ele>534.8</ele>
        <time>2017-07-02T10:36:05Z</time>
      </trkpt>
      <trkpt lat="42.37462" lon="0.15192">
        <ele>535</ele>
        <time>2017-07-02T10:36:06Z</time>
      </trkpt>
      <trkpt lat="42.37459" lon="0.15187">
        <ele>535.1</ele>
        <time>2017-07-02T10:36:07Z</time>
      </trkpt>
      <trkpt lat="42.37457" lon="0.1518">
        <ele>535.2</ele>
        <time>2017-07-02T10:36:08Z</time>
      </trkpt>
      <trkpt lat="42.37456" lon="0.15175">
        <ele>535.3</ele>
        <time>2017-07-02T10:36:09Z</time>
      </trkpt>
      <trkpt lat="42.37452" lon="0.15169">
        <ele>535.4</ele>
        <time>2017-07-02T10:36:10Z</time>
      </trkpt>
      <trkpt lat="42.37451" lon="0.15163">
        <ele>535.5</ele>
        <time>2017-07-02T10:36:11Z</time>
      </trkpt>
      <trkpt lat="42.37449" lon="0.15158">
        <ele>535.7</ele>
        <time>2017-07-02T10:36:12Z</time>
      </trkpt>
      <trkpt lat="42.37445" lon="0.15152">
        <ele>535.8</ele>
        <time>2017-07-02T10:36:13Z</time>
      </trkpt>
      <trkpt lat="42.37443" lon="0.15147">
        <ele>535.9</ele>
        <time>2017-07-02T10:36:14Z</time>
      </trkpt>
      <trkpt lat="42.37441" lon="0.15142">
        <ele>536</ele>
        <time>2017-07-02T10:36:15Z</time>
      </trkpt>
      <trkpt lat="42.37439" lon="0.15137">
        <ele>536</ele>
        <time>2017-07-02T10:36:16Z</time>
      </trkpt>
      <trkpt lat="42.37439" lon="0.15131">
        <ele>536</ele>
        <time>2017-07-02T10:36:17Z</time>
      </trkpt>
      <trkpt lat="42.37437" lon="0.15125">
        <ele>535.9</ele>
        <time>2017-07-02T10:36:18Z</time>
      </trkpt>
      <trkpt lat="42.37436" lon="0.15119">
        <ele>535.9</ele>
        <time>2017-07-02T10:36:19Z</time>
      </trkpt>
      <trkpt lat="42.37434" lon="0.15114">
        <ele>535.9</ele>
        <time>2017-07-02T10:36:20Z</time>
      </trkpt>
      <trkpt lat="42.37432" lon="0.15109">
        <ele>535.9</ele>
        <time>2017-07-02T10:36:21Z</time>
      </trkpt>
      <trkpt lat="42.3743" lon="0.15103">
        <ele>535.9</ele>
        <time>2017-07-02T10:36:22Z</time>
      </trkpt>
      <trkpt lat="42.37429" lon="0.15098">
        <ele>535.8</ele>
        <time>2017-07-02T10:36:23Z</time>
      </trkpt>
      <trkpt lat="42.37428" lon="0.15092">
        <ele>535.8</ele>
        <time>2017-07-02T10:36:24Z</time>
      </trkpt>
      <trkpt lat="42.37427" lon="0.15086">
        <ele>535.8</ele>
        <time>2017-07-02T10:36:25Z</time>
      </trkpt>
      <trkpt lat="42.37426" lon="0.15079">
        <ele>535.8</ele>
        <time>2017-07-02T10:36:26Z</time>
      </trkpt>
      <trkpt lat="42.37426" lon="0.15073">
        <ele>535.7</ele>
        <time>2017-07-02T10:36:27Z</time>
      </trkpt>
      <trkpt lat="42.37426" lon="0.15068">
        <ele>535.7</ele>
        <time>2017-07-02T10:36:28Z</time>
      </trkpt>
      <trkpt lat="42.37424" lon="0.15062">
        <ele>535.7</ele>
        <time>2017-07-02T10:36:29Z</time>
      </trkpt>
      <trkpt lat="42.37424" lon="0.15055">
        <ele>535.7</ele>
        <time>2017-07-02T10:36:30Z</time>
      </trkpt>
      <trkpt lat="42.37424" lon="0.15049">
        <ele>535.7</ele>
        <time>2017-07-02T10:36:31Z</time>
      </trkpt>
      <trkpt lat="42.37424" lon="0.15044">
        <ele>535.6</ele>
        <time>2017-07-02T10:36:32Z</time>
      </trkpt>
      <trkpt lat="42.37427" lon="0.15036">
        <ele>535.6</ele>
        <time>2017-07-02T10:36:33Z</time>
      </trkpt>
      <trkpt lat="42.37427" lon="0.15031">
        <ele>535.6</ele>
        <time>2017-07-02T10:36:34Z</time>
      </trkpt>
      <trkpt lat="42.37425" lon="0.15025">
        <ele>535.6</ele>
        <time>2017-07-02T10:36:35Z</time>
      </trkpt>
      <trkpt lat="42.37426" lon="0.15019">
        <ele>535.6</ele>
        <time>2017-07-02T10:36:36Z</time>
      </trkpt>
      <trkpt lat="42.37425" lon="0.15012">
        <ele>535.5</ele>
        <time>2017-07-02T10:36:37Z</time>
      </trkpt>
      <trkpt lat="42.37424" lon="0.15006">
        <ele>535.5</ele>
        <time>2017-07-02T10:36:38Z</time>
      </trkpt>
      <trkpt lat="42.37425" lon="0.15">
        <ele>535.5</ele>
        <time>2017-07-02T10:36:39Z</time>
      </trkpt>
      <trkpt lat="42.37426" lon="0.14994">
        <ele>535.5</ele>
        <time>2017-07-02T10:36:40Z</time>
      </trkpt>
      <trkpt lat="42.37426" lon="0.14987">
        <ele>535.5</ele>
        <time>2017-07-02T10:36:41Z</time>
      </trkpt>
      <trkpt lat="42.37427" lon="0.14979">
        <ele>535.4</ele>
        <time>2017-07-02T10:36:42Z</time>
      </trkpt>
      <trkpt lat="42.37428" lon="0.14972">
        <ele>535.4</ele>
        <time>2017-07-02T10:36:43Z</time>
      </trkpt>
      <trkpt lat="42.37431" lon="0.14966">
        <ele>535.4</ele>
        <time>2017-07-02T10:36:44Z</time>
      </trkpt>
      <trkpt lat="42.37432" lon="0.1496">
        <ele>535.4</ele>
        <time>2017-07-02T10:36:45Z</time>
      </trkpt>
      <trkpt lat="42.37433" lon="0.14954">
        <ele>535.4</ele>
        <time>2017-07-02T10:36:46Z</time>
      </trkpt>
      <trkpt lat="42.37434" lon="0.14948">
        <ele>535.4</ele>
        <time>2017-07-02T10:36:47Z</time>
      </trkpt>
      <trkpt lat="42.37436" lon="0.14942">
        <ele>535.4</ele>
        <time>2017-07-02T10:36:48Z</time>
      </trkpt>
      <trkpt lat="42.37439" lon="0.14937">
        <ele>535.4</ele>
        <time>2017-07-02T10:36:49Z</time>
      </trkpt>
      <trkpt lat="42.37441" lon="0.14931">
        <ele>535.4</ele>
        <time>2017-07-02T10:36:50Z</time>
      </trkpt>
      <trkpt lat="42.37442" lon="0.14925">
        <ele>535.4</ele>
        <time>2017-07-02T10:36:51Z</time>
      </trkpt>
      <trkpt lat="42.37444" lon="0.14919">
        <ele>535.4</ele>
        <time>2017-07-02T10:36:52Z</time>
      </trkpt>
      <trkpt lat="42.37446" lon="0.14914">
        <ele>535.4</ele>
        <time>2017-07-02T10:36:53Z</time>
      </trkpt>
      <trkpt lat="42.37448" lon="0.14908">
        <ele>535.5</ele>
        <time>2017-07-02T10:36:54Z</time>
      </trkpt>
      <trkpt lat="42.3745" lon="0.14902">
        <ele>535.5</ele>
        <time>2017-07-02T10:36:55Z</time>
      </trkpt>
      <trkpt lat="42.37452" lon="0.14897">
        <ele>535.7</ele>
        <time>2017-07-02T10:36:56Z</time>
      </trkpt>
      <trkpt lat="42.37455" lon="0.14892">
        <ele>535.9</ele>
        <time>2017-07-02T10:36:57Z</time>
      </trkpt>
      <trkpt lat="42.37456" lon="0.14886">
        <ele>536</ele>
        <time>2017-07-02T10:36:58Z</time>
      </trkpt>
      <trkpt lat="42.37459" lon="0.1488">
        <ele>536.2</ele>
        <time>2017-07-02T10:36:59Z</time>
      </trkpt>
      <trkpt lat="42.37461" lon="0.14875">
        <ele>536.2</ele>
        <time>2017-07-02T10:37:00Z</time>
      </trkpt>
      <trkpt lat="42.37463" lon="0.1487">
        <ele>536.2</ele>
        <time>2017-07-02T10:37:01Z</time>
      </trkpt>
      <trkpt lat="42.37466" lon="0.14864">
        <ele>536.2</ele>
        <time>2017-07-02T10:37:02Z</time>
      </trkpt>
      <trkpt lat="42.37468" lon="0.14858">
        <ele>536.2</ele>
        <time>2017-07-02T10:37:03Z</time>
      </trkpt>
      <trkpt lat="42.37471" lon="0.14853">
        <ele>536.3</ele>
        <time>2017-07-02T10:37:04Z</time>
      </trkpt>
      <trkpt lat="42.37472" lon="0.14847">
        <ele>536.3</ele>
        <time>2017-07-02T10:37:05Z</time>
      </trkpt>
      <trkpt lat="42.37474" lon="0.14842">
        <ele>536.3</ele>
        <time>2017-07-02T10:37:06Z</time>
      </trkpt>
      <trkpt lat="42.37475" lon="0.14838">
        <ele>536.3</ele>
        <time>2017-07-02T10:37:07Z</time>
      </trkpt>
      <trkpt lat="42.37478" lon="0.14829">
        <ele>536.2</ele>
        <time>2017-07-02T10:37:09Z</time>
      </trkpt>
      <trkpt lat="42.3748" lon="0.14824">
        <ele>536.2</ele>
        <time>2017-07-02T10:37:10Z</time>
      </trkpt>
      <trkpt lat="42.37482" lon="0.14819">
        <ele>536.2</ele>
        <time>2017-07-02T10:37:11Z</time>
      </trkpt>
      <trkpt lat="42.37484" lon="0.14814">
        <ele>536.2</ele>
        <time>2017-07-02T10:37:12Z</time>
      </trkpt>
      <trkpt lat="42.37486" lon="0.1481">
        <ele>536.2</ele>
        <time>2017-07-02T10:37:13Z</time>
      </trkpt>
      <trkpt lat="42.37487" lon="0.14805">
        <ele>536.4</ele>
        <time>2017-07-02T10:37:14Z</time>
      </trkpt>
      <trkpt lat="42.37489" lon="0.148">
        <ele>536.6</ele>
        <time>2017-07-02T10:37:15Z</time>
      </trkpt>
      <trkpt lat="42.3749" lon="0.14796">
        <ele>537</ele>
        <time>2017-07-02T10:37:16Z</time>
      </trkpt>
      <trkpt lat="42.37492" lon="0.14793">
        <ele>537.4</ele>
        <time>2017-07-02T10:37:17Z</time>
      </trkpt>
      <trkpt lat="42.37495" lon="0.1479">
        <ele>537.9</ele>
        <time>2017-07-02T10:37:18Z</time>
      </trkpt>
      <trkpt lat="42.37498" lon="0.14789">
        <ele>538.3</ele>
        <time>2017-07-02T10:37:19Z</time>
      </trkpt>
      <trkpt lat="42.37501" lon="0.1479">
        <ele>538.6</ele>
        <time>2017-07-02T10:37:20Z</time>
      </trkpt>
      <trkpt lat="42.37505" lon="0.14792">
        <ele>539</ele>
        <time>2017-07-02T10:37:21Z</time>
      </trkpt>
      <trkpt lat="42.37507" lon="0.14795">
        <ele>539.5</ele>
        <time>2017-07-02T10:37:22Z</time>
      </trkpt>
      <trkpt lat="42.3751" lon="0.14798">
        <ele>539.9</ele>
        <time>2017-07-02T10:37:23Z</time>
      </trkpt>
      <trkpt lat="42.37512" lon="0.14803">
        <ele>540.4</ele>
        <time>2017-07-02T10:37:25Z</time>
      </trkpt>
      <trkpt lat="42.37514" lon="0.14808">
        <ele>540.6</ele>
        <time>2017-07-02T10:37:27Z</time>
      </trkpt>
      <trkpt lat="42.37518" lon="0.14813">
        <ele>540.9</ele>
        <time>2017-07-02T10:37:29Z</time>
      </trkpt>
      <trkpt lat="42.37522" lon="0.14816">
        <ele>541.1</ele>
        <time>2017-07-02T10:37:31Z</time>
      </trkpt>
      <trkpt lat="42.37526" lon="0.1482">
        <ele>541.6</ele>
        <time>2017-07-02T10:37:33Z</time>
      </trkpt>
      <trkpt lat="42.37527" lon="0.14827">
        <ele>542.1</ele>
        <time>2017-07-02T10:37:35Z</time>
      </trkpt>
      <trkpt lat="42.37525" lon="0.14835">
        <ele>542.4</ele>
        <time>2017-07-02T10:37:37Z</time>
      </trkpt>
      <trkpt lat="42.37523" lon="0.14839">
        <ele>542.5</ele>
        <time>2017-07-02T10:37:38Z</time>
      </trkpt>
      <trkpt lat="42.37521" lon="0.14843">
        <ele>542.7</ele>
        <time>2017-07-02T10:37:39Z</time>
      </trkpt>
      <trkpt lat="42.3752" lon="0.14846">
        <ele>542.9</ele>
        <time>2017-07-02T10:37:40Z</time>
      </trkpt>
      <trkpt lat="42.37519" lon="0.14849">
        <ele>543</ele>
        <time>2017-07-02T10:37:41Z</time>
      </trkpt>
      <trkpt lat="42.37516" lon="0.14854">
        <ele>543.2</ele>
        <time>2017-07-02T10:37:43Z</time>
      </trkpt>
      <trkpt lat="42.37513" lon="0.1486">
        <ele>543.3</ele>
        <time>2017-07-02T10:37:45Z</time>
      </trkpt>
      <trkpt lat="42.37511" lon="0.14863">
        <ele>543.4</ele>
        <time>2017-07-02T10:37:46Z</time>
      </trkpt>
      <trkpt lat="42.37509" lon="0.14868">
        <ele>543.7</ele>
        <time>2017-07-02T10:37:48Z</time>
      </trkpt>
      <trkpt lat="42.37506" lon="0.14871">
        <ele>544</ele>
        <time>2017-07-02T10:37:50Z</time>
      </trkpt>
      <trkpt lat="42.37503" lon="0.14875">
        <ele>544.5</ele>
        <time>2017-07-02T10:37:52Z</time>
      </trkpt>
      <trkpt lat="42.375" lon="0.14877">
        <ele>544.9</ele>
        <time>2017-07-02T10:37:55Z</time>
      </trkpt>
      <trkpt lat="42.37497" lon="0.14879">
        <ele>545</ele>
        <time>2017-07-02T10:37:58Z</time>
      </trkpt>
      <trkpt lat="42.37496" lon="0.14885">
        <ele>545.2</ele>
        <time>2017-07-02T10:38:01Z</time>
      </trkpt>
      <trkpt lat="42.37495" lon="0.1489">
        <ele>545.4</ele>
        <time>2017-07-02T10:38:03Z</time>
      </trkpt>
      <trkpt lat="42.37494" lon="0.14894">
        <ele>545.6</ele>
        <time>2017-07-02T10:38:05Z</time>
      </trkpt>
      <trkpt lat="42.37491" lon="0.14899">
        <ele>545.8</ele>
        <time>2017-07-02T10:38:07Z</time>
      </trkpt>
      <trkpt lat="42.37488" lon="0.14903">
        <ele>546.2</ele>
        <time>2017-07-02T10:38:09Z</time>
      </trkpt>
      <trkpt lat="42.37485" lon="0.14907">
        <ele>546.7</ele>
        <time>2017-07-02T10:38:11Z</time>
      </trkpt>
      <trkpt lat="42.37483" lon="0.14912">
        <ele>547.1</ele>
        <time>2017-07-02T10:38:13Z</time>
      </trkpt>
      <trkpt lat="42.37481" lon="0.14917">
        <ele>547.4</ele>
        <time>2017-07-02T10:38:15Z</time>
      </trkpt>
      <trkpt lat="42.37478" lon="0.14922">
        <ele>547.6</ele>
        <time>2017-07-02T10:38:17Z</time>
      </trkpt>
      <trkpt lat="42.37476" lon="0.14927">
        <ele>548</ele>
        <time>2017-07-02T10:38:19Z</time>
      </trkpt>
      <trkpt lat="42.37473" lon="0.14932">
        <ele>548.8</ele>
        <time>2017-07-02T10:38:21Z</time>
      </trkpt>
      <trkpt lat="42.37471" lon="0.14937">
        <ele>549.3</ele>
        <time>2017-07-02T10:38:23Z</time>
      </trkpt>
      <trkpt lat="42.37468" lon="0.14942">
        <ele>549.7</ele>
        <time>2017-07-02T10:38:25Z</time>
      </trkpt>
      <trkpt lat="42.37465" lon="0.14947">
        <ele>550</ele>
        <time>2017-07-02T10:38:27Z</time>
      </trkpt>
      <trkpt lat="42.37463" lon="0.14952">
        <ele>550.3</ele>
        <time>2017-07-02T10:38:29Z</time>
      </trkpt>
      <trkpt lat="42.3746" lon="0.14957">
        <ele>550.9</ele>
        <time>2017-07-02T10:38:31Z</time>
      </trkpt>
      <trkpt lat="42.37459" lon="0.14963">
        <ele>551.4</ele>
        <time>2017-07-02T10:38:33Z</time>
      </trkpt>
      <trkpt lat="42.37458" lon="0.14968">
        <ele>551.7</ele>
        <time>2017-07-02T10:38:35Z</time>
      </trkpt>
      <trkpt lat="42.37457" lon="0.14974">
        <ele>551.9</ele>
        <time>2017-07-02T10:38:37Z</time>
      </trkpt>
      <trkpt lat="42.37456" lon="0.14979">
        <ele>552.3</ele>
        <time>2017-07-02T10:38:39Z</time>
      </trkpt>
      <trkpt lat="42.37455" lon="0.14984">
        <ele>552.8</ele>
        <time>2017-07-02T10:38:41Z</time>
      </trkpt>
      <trkpt lat="42.37455" lon="0.14989">
        <ele>553.4</ele>
        <time>2017-07-02T10:38:43Z</time>
      </trkpt>
      <trkpt lat="42.37455" lon="0.14994">
        <ele>553.8</ele>
        <time>2017-07-02T10:38:45Z</time>
      </trkpt>
      <trkpt lat="42.37456" lon="0.14999">
        <ele>554</ele>
        <time>2017-07-02T10:38:47Z</time>
      </trkpt>
      <trkpt lat="42.37456" lon="0.15003">
        <ele>554.3</ele>
        <time>2017-07-02T10:38:49Z</time>
      </trkpt>
      <trkpt lat="42.37458" lon="0.15008">
        <ele>554.9</ele>
        <time>2017-07-02T10:38:51Z</time>
      </trkpt>
      <trkpt lat="42.37459" lon="0.15013">
        <ele>555.5</ele>
        <time>2017-07-02T10:38:53Z</time>
      </trkpt>
      <trkpt lat="42.37461" lon="0.15017">
        <ele>555.8</ele>
        <time>2017-07-02T10:38:55Z</time>
      </trkpt>
      <trkpt lat="42.37463" lon="0.15021">
        <ele>556.2</ele>
        <time>2017-07-02T10:38:57Z</time>
      </trkpt>
      <trkpt lat="42.37465" lon="0.15026">
        <ele>556.4</ele>
        <time>2017-07-02T10:38:59Z</time>
      </trkpt>
      <trkpt lat="42.37467" lon="0.15029">
        <ele>556.6</ele>
        <time>2017-07-02T10:39:01Z</time>
      </trkpt>
      <trkpt lat="42.37468" lon="0.15033">
        <ele>556.7</ele>
        <time>2017-07-02T10:39:03Z</time>
      </trkpt>
      <trkpt lat="42.3747" lon="0.15036">
        <ele>556.9</ele>
        <time>2017-07-02T10:39:05Z</time>
      </trkpt>
      <trkpt lat="42.37473" lon="0.15039">
        <ele>557.4</ele>
        <time>2017-07-02T10:39:07Z</time>
      </trkpt>
      <trkpt lat="42.37475" lon="0.15042">
        <ele>557.8</ele>
        <time>2017-07-02T10:39:09Z</time>
      </trkpt>
      <trkpt lat="42.37478" lon="0.15044">
        <ele>558</ele>
        <time>2017-07-02T10:39:11Z</time>
      </trkpt>
      <trkpt lat="42.37481" lon="0.15045">
        <ele>558.3</ele>
        <time>2017-07-02T10:39:13Z</time>
      </trkpt>
      <trkpt lat="42.37484" lon="0.15046">
        <ele>558.5</ele>
        <time>2017-07-02T10:39:15Z</time>
      </trkpt>
      <trkpt lat="42.37487" lon="0.15047">
        <ele>558.8</ele>
        <time>2017-07-02T10:39:17Z</time>
      </trkpt>
      <trkpt lat="42.3749" lon="0.15048">
        <ele>559.2</ele>
        <time>2017-07-02T10:39:19Z</time>
      </trkpt>
      <trkpt lat="42.37494" lon="0.15049">
        <ele>559.8</ele>
        <time>2017-07-02T10:39:21Z</time>
      </trkpt>
      <trkpt lat="42.37498" lon="0.15049">
        <ele>560.3</ele>
        <time>2017-07-02T10:39:23Z</time>
      </trkpt>
      <trkpt lat="42.37501" lon="0.15048">
        <ele>560.5</ele>
        <time>2017-07-02T10:39:25Z</time>
      </trkpt>
      <trkpt lat="42.37505" lon="0.15047">
        <ele>560.8</ele>
        <time>2017-07-02T10:39:27Z</time>
      </trkpt>
      <trkpt lat="42.37509" lon="0.15047">
        <ele>561.4</ele>
        <time>2017-07-02T10:39:29Z</time>
      </trkpt>
      <trkpt lat="42.37513" lon="0.15048">
        <ele>562.1</ele>
        <time>2017-07-02T10:39:31Z</time>
      </trkpt>
      <trkpt lat="42.37516" lon="0.15048">
        <ele>562.6</ele>
        <time>2017-07-02T10:39:33Z</time>
      </trkpt>
      <trkpt lat="42.37519" lon="0.15049">
        <ele>562.8</ele>
        <time>2017-07-02T10:39:35Z</time>
      </trkpt>
      <trkpt lat="42.37523" lon="0.1505">
        <ele>563.1</ele>
        <time>2017-07-02T10:39:37Z</time>
      </trkpt>
      <trkpt lat="42.37526" lon="0.15051">
        <ele>563.3</ele>
        <time>2017-07-02T10:39:39Z</time>
      </trkpt>
      <trkpt lat="42.3753" lon="0.15051">
        <ele>563.5</ele>
        <time>2017-07-02T10:39:41Z</time>
      </trkpt>
      <trkpt lat="42.37533" lon="0.15053">
        <ele>563.7</ele>
        <time>2017-07-02T10:39:43Z</time>
      </trkpt>
      <trkpt lat="42.37536" lon="0.15055">
        <ele>564.3</ele>
        <time>2017-07-02T10:39:45Z</time>
      </trkpt>
      <trkpt lat="42.3754" lon="0.15056">
        <ele>564.8</ele>
        <time>2017-07-02T10:39:47Z</time>
      </trkpt>
      <trkpt lat="42.37544" lon="0.15057">
        <ele>565.2</ele>
        <time>2017-07-02T10:39:49Z</time>
      </trkpt>
      <trkpt lat="42.37547" lon="0.15058">
        <ele>565.4</ele>
        <time>2017-07-02T10:39:51Z</time>
      </trkpt>
      <trkpt lat="42.37551" lon="0.15059">
        <ele>565.8</ele>
        <time>2017-07-02T10:39:53Z</time>
      </trkpt>
      <trkpt lat="42.37555" lon="0.15059">
        <ele>566.2</ele>
        <time>2017-07-02T10:39:55Z</time>
      </trkpt>
      <trkpt lat="42.37558" lon="0.15059">
        <ele>566.7</ele>
        <time>2017-07-02T10:39:57Z</time>
      </trkpt>
      <trkpt lat="42.37562" lon="0.1506">
        <ele>567.1</ele>
        <time>2017-07-02T10:39:59Z</time>
      </trkpt>
      <trkpt lat="42.37565" lon="0.15061">
        <ele>567.4</ele>
        <time>2017-07-02T10:40:01Z</time>
      </trkpt>
      <trkpt lat="42.37569" lon="0.15063">
        <ele>567.6</ele>
        <time>2017-07-02T10:40:03Z</time>
      </trkpt>
      <trkpt lat="42.37572" lon="0.15065">
        <ele>567.8</ele>
        <time>2017-07-02T10:40:05Z</time>
      </trkpt>
      <trkpt lat="42.37575" lon="0.15067">
        <ele>568.2</ele>
        <time>2017-07-02T10:40:07Z</time>
      </trkpt>
      <trkpt lat="42.37578" lon="0.1507">
        <ele>568.8</ele>
        <time>2017-07-02T10:40:09Z</time>
      </trkpt>
      <trkpt lat="42.37582" lon="0.15072">
        <ele>569.2</ele>
        <time>2017-07-02T10:40:11Z</time>
      </trkpt>
      <trkpt lat="42.37585" lon="0.15074">
        <ele>569.5</ele>
        <time>2017-07-02T10:40:13Z</time>
      </trkpt>
      <trkpt lat="42.37589" lon="0.15076">
        <ele>569.8</ele>
        <time>2017-07-02T10:40:15Z</time>
      </trkpt>
      <trkpt lat="42.37593" lon="0.15078">
        <ele>570.1</ele>
        <time>2017-07-02T10:40:17Z</time>
      </trkpt>
      <trkpt lat="42.37596" lon="0.1508">
        <ele>570.6</ele>
        <time>2017-07-02T10:40:19Z</time>
      </trkpt>
      <trkpt lat="42.37599" lon="0.15082">
        <ele>571.2</ele>
        <time>2017-07-02T10:40:21Z</time>
      </trkpt>
      <trkpt lat="42.37602" lon="0.15085">
        <ele>571.5</ele>
        <time>2017-07-02T10:40:23Z</time>
      </trkpt>
      <trkpt lat="42.37604" lon="0.15087">
        <ele>571.7</ele>
        <time>2017-07-02T10:40:25Z</time>
      </trkpt>
      <trkpt lat="42.37607" lon="0.15089">
        <ele>572</ele>
        <time>2017-07-02T10:40:27Z</time>
      </trkpt>
      <trkpt lat="42.3761" lon="0.1509">
        <ele>572.4</ele>
        <time>2017-07-02T10:40:29Z</time>
      </trkpt>
      <trkpt lat="42.37614" lon="0.15091">
        <ele>572.9</ele>
        <time>2017-07-02T10:40:31Z</time>
      </trkpt>
      <trkpt lat="42.37618" lon="0.15092">
        <ele>573.5</ele>
        <time>2017-07-02T10:40:33Z</time>
      </trkpt>
      <trkpt lat="42.37622" lon="0.15092">
        <ele>573.9</ele>
        <time>2017-07-02T10:40:35Z</time>
      </trkpt>
      <trkpt lat="42.37625" lon="0.15092">
        <ele>574.2</ele>
        <time>2017-07-02T10:40:37Z</time>
      </trkpt>
      <trkpt lat="42.37629" lon="0.15093">
        <ele>574.6</ele>
        <time>2017-07-02T10:40:39Z</time>
      </trkpt>
      <trkpt lat="42.37632" lon="0.15093">
        <ele>575.1</ele>
        <time>2017-07-02T10:40:41Z</time>
      </trkpt>
      <trkpt lat="42.37635" lon="0.15093">
        <ele>575.6</ele>
        <time>2017-07-02T10:40:43Z</time>
      </trkpt>
      <trkpt lat="42.37639" lon="0.15094">
        <ele>576</ele>
        <time>2017-07-02T10:40:45Z</time>
      </trkpt>
      <trkpt lat="42.37642" lon="0.15095">
        <ele>576.5</ele>
        <time>2017-07-02T10:40:47Z</time>
      </trkpt>
      <trkpt lat="42.37646" lon="0.15096">
        <ele>576.8</ele>
        <time>2017-07-02T10:40:49Z</time>
      </trkpt>
      <trkpt lat="42.3765" lon="0.15096">
        <ele>577.4</ele>
        <time>2017-07-02T10:40:51Z</time>
      </trkpt>
      <trkpt lat="42.37653" lon="0.15097">
        <ele>578</ele>
        <time>2017-07-02T10:40:53Z</time>
      </trkpt>
      <trkpt lat="42.37657" lon="0.15099">
        <ele>578.3</ele>
        <time>2017-07-02T10:40:55Z</time>
      </trkpt>
      <trkpt lat="42.3766" lon="0.15099">
        <ele>578.5</ele>
        <time>2017-07-02T10:40:57Z</time>
      </trkpt>
      <trkpt lat="42.37663" lon="0.151">
        <ele>578.7</ele>
        <time>2017-07-02T10:40:59Z</time>
      </trkpt>
      <trkpt lat="42.37667" lon="0.15101">
        <ele>579</ele>
        <time>2017-07-02T10:41:01Z</time>
      </trkpt>
      <trkpt lat="42.3767" lon="0.151">
        <ele>579.4</ele>
        <time>2017-07-02T10:41:03Z</time>
      </trkpt>
      <trkpt lat="42.37673" lon="0.151">
        <ele>579.9</ele>
        <time>2017-07-02T10:41:05Z</time>
      </trkpt>
      <trkpt lat="42.37676" lon="0.15098">
        <ele>580.4</ele>
        <time>2017-07-02T10:41:07Z</time>
      </trkpt>
      <trkpt lat="42.37679" lon="0.15097">
        <ele>580.6</ele>
        <time>2017-07-02T10:41:09Z</time>
      </trkpt>
      <trkpt lat="42.37682" lon="0.15095">
        <ele>580.8</ele>
        <time>2017-07-02T10:41:11Z</time>
      </trkpt>
      <trkpt lat="42.37685" lon="0.15092">
        <ele>581.1</ele>
        <time>2017-07-02T10:41:13Z</time>
      </trkpt>
      <trkpt lat="42.37687" lon="0.15089">
        <ele>581.4</ele>
        <time>2017-07-02T10:41:15Z</time>
      </trkpt>
      <trkpt lat="42.3769" lon="0.15086">
        <ele>582</ele>
        <time>2017-07-02T10:41:17Z</time>
      </trkpt>
      <trkpt lat="42.37693" lon="0.15084">
        <ele>582.5</ele>
        <time>2017-07-02T10:41:19Z</time>
      </trkpt>
      <trkpt lat="42.37696" lon="0.15082">
        <ele>583</ele>
        <time>2017-07-02T10:41:21Z</time>
      </trkpt>
      <trkpt lat="42.37699" lon="0.15079">
        <ele>583.2</ele>
        <time>2017-07-02T10:41:23Z</time>
      </trkpt>
      <trkpt lat="42.37701" lon="0.15075">
        <ele>583.4</ele>
        <time>2017-07-02T10:41:25Z</time>
      </trkpt>
      <trkpt lat="42.37704" lon="0.15072">
        <ele>583.6</ele>
        <time>2017-07-02T10:41:27Z</time>
      </trkpt>
      <trkpt lat="42.37707" lon="0.1507">
        <ele>583.8</ele>
        <time>2017-07-02T10:41:29Z</time>
      </trkpt>
      <trkpt lat="42.37709" lon="0.15067">
        <ele>584.1</ele>
        <time>2017-07-02T10:41:31Z</time>
      </trkpt>
      <trkpt lat="42.37712" lon="0.15064">
        <ele>584.7</ele>
        <time>2017-07-02T10:41:33Z</time>
      </trkpt>
      <trkpt lat="42.37714" lon="0.15061">
        <ele>585.2</ele>
        <time>2017-07-02T10:41:35Z</time>
      </trkpt>
      <trkpt lat="42.37717" lon="0.15059">
        <ele>585.5</ele>
        <time>2017-07-02T10:41:37Z</time>
      </trkpt>
      <trkpt lat="42.3772" lon="0.15056">
        <ele>585.8</ele>
        <time>2017-07-02T10:41:39Z</time>
      </trkpt>
      <trkpt lat="42.37723" lon="0.15054">
        <ele>586</ele>
        <time>2017-07-02T10:41:41Z</time>
      </trkpt>
      <trkpt lat="42.37726" lon="0.15052">
        <ele>586.5</ele>
        <time>2017-07-02T10:41:43Z</time>
      </trkpt>
      <trkpt lat="42.37729" lon="0.15049">
        <ele>587.1</ele>
        <time>2017-07-02T10:41:45Z</time>
      </trkpt>
      <trkpt lat="42.37732" lon="0.15047">
        <ele>587.5</ele>
        <time>2017-07-02T10:41:47Z</time>
      </trkpt>
      <trkpt lat="42.37735" lon="0.15046">
        <ele>587.8</ele>
        <time>2017-07-02T10:41:49Z</time>
      </trkpt>
      <trkpt lat="42.37738" lon="0.15044">
        <ele>588.4</ele>
        <time>2017-07-02T10:41:51Z</time>
      </trkpt>
      <trkpt lat="42.37741" lon="0.15041">
        <ele>589</ele>
        <time>2017-07-02T10:41:53Z</time>
      </trkpt>
      <trkpt lat="42.37744" lon="0.15038">
        <ele>589.5</ele>
        <time>2017-07-02T10:41:55Z</time>
      </trkpt>
      <trkpt lat="42.37746" lon="0.15036">
        <ele>589.9</ele>
        <time>2017-07-02T10:41:57Z</time>
      </trkpt>
      <trkpt lat="42.37749" lon="0.15034">
        <ele>590.1</ele>
        <time>2017-07-02T10:41:59Z</time>
      </trkpt>
      <trkpt lat="42.37752" lon="0.15032">
        <ele>590.2</ele>
        <time>2017-07-02T10:42:01Z</time>
      </trkpt>
      <trkpt lat="42.37756" lon="0.15031">
        <ele>590.4</ele>
        <time>2017-07-02T10:42:03Z</time>
      </trkpt>
      <trkpt lat="42.37758" lon="0.15029">
        <ele>590.6</ele>
        <time>2017-07-02T10:42:05Z</time>
      </trkpt>
      <trkpt lat="42.37761" lon="0.15027">
        <ele>591</ele>
        <time>2017-07-02T10:42:07Z</time>
      </trkpt>
      <trkpt lat="42.37764" lon="0.15026">
        <ele>591.5</ele>
        <time>2017-07-02T10:42:09Z</time>
      </trkpt>
      <trkpt lat="42.37767" lon="0.15024">
        <ele>591.9</ele>
        <time>2017-07-02T10:42:11Z</time>
      </trkpt>
      <trkpt lat="42.3777" lon="0.15021">
        <ele>592.2</ele>
        <time>2017-07-02T10:42:13Z</time>
      </trkpt>
      <trkpt lat="42.37773" lon="0.15018">
        <ele>592.4</ele>
        <time>2017-07-02T10:42:15Z</time>
      </trkpt>
      <trkpt lat="42.37775" lon="0.15014">
        <ele>592.6</ele>
        <time>2017-07-02T10:42:17Z</time>
      </trkpt>
      <trkpt lat="42.37777" lon="0.1501">
        <ele>593.1</ele>
        <time>2017-07-02T10:42:19Z</time>
      </trkpt>
      <trkpt lat="42.37779" lon="0.15006">
        <ele>593.6</ele>
        <time>2017-07-02T10:42:21Z</time>
      </trkpt>
      <trkpt lat="42.3778" lon="0.15002">
        <ele>594</ele>
        <time>2017-07-02T10:42:23Z</time>
      </trkpt>
      <trkpt lat="42.37783" lon="0.14999">
        <ele>594.3</ele>
        <time>2017-07-02T10:42:25Z</time>
      </trkpt>
      <trkpt lat="42.37786" lon="0.14995">
        <ele>594.6</ele>
        <time>2017-07-02T10:42:27Z</time>
      </trkpt>
      <trkpt lat="42.3779" lon="0.14992">
        <ele>595</ele>
        <time>2017-07-02T10:42:29Z</time>
      </trkpt>
      <trkpt lat="42.37793" lon="0.14988">
        <ele>595.6</ele>
        <time>2017-07-02T10:42:31Z</time>
      </trkpt>
      <trkpt lat="42.37795" lon="0.14985">
        <ele>596.2</ele>
        <time>2017-07-02T10:42:33Z</time>
      </trkpt>
      <trkpt lat="42.37798" lon="0.14982">
        <ele>596.4</ele>
        <time>2017-07-02T10:42:35Z</time>
      </trkpt>
      <trkpt lat="42.37801" lon="0.1498">
        <ele>596.6</ele>
        <time>2017-07-02T10:42:37Z</time>
      </trkpt>
      <trkpt lat="42.37804" lon="0.14978">
        <ele>596.8</ele>
        <time>2017-07-02T10:42:39Z</time>
      </trkpt>
      <trkpt lat="42.37808" lon="0.14977">
        <ele>597.2</ele>
        <time>2017-07-02T10:42:41Z</time>
      </trkpt>
      <trkpt lat="42.37811" lon="0.14976">
        <ele>597.8</ele>
        <time>2017-07-02T10:42:43Z</time>
      </trkpt>
      <trkpt lat="42.37815" lon="0.14975">
        <ele>598.2</ele>
        <time>2017-07-02T10:42:45Z</time>
      </trkpt>
      <trkpt lat="42.37819" lon="0.14974">
        <ele>598.5</ele>
        <time>2017-07-02T10:42:47Z</time>
      </trkpt>
      <trkpt lat="42.37823" lon="0.14973">
        <ele>598.7</ele>
        <time>2017-07-02T10:42:49Z</time>
      </trkpt>
      <trkpt lat="42.37826" lon="0.14972">
        <ele>598.8</ele>
        <time>2017-07-02T10:42:51Z</time>
      </trkpt>
      <trkpt lat="42.3783" lon="0.1497">
        <ele>599</ele>
        <time>2017-07-02T10:42:53Z</time>
      </trkpt>
      <trkpt lat="42.37833" lon="0.14968">
        <ele>599.3</ele>
        <time>2017-07-02T10:42:55Z</time>
      </trkpt>
      <trkpt lat="42.37836" lon="0.14966">
        <ele>599.8</ele>
        <time>2017-07-02T10:42:57Z</time>
      </trkpt>
      <trkpt lat="42.37839" lon="0.14964">
        <ele>600.5</ele>
        <time>2017-07-02T10:42:59Z</time>
      </trkpt>
      <trkpt lat="42.37842" lon="0.14961">
        <ele>600.9</ele>
        <time>2017-07-02T10:43:01Z</time>
      </trkpt>
      <trkpt lat="42.37845" lon="0.14959">
        <ele>601.4</ele>
        <time>2017-07-02T10:43:03Z</time>
      </trkpt>
      <trkpt lat="42.37849" lon="0.14957">
        <ele>602.2</ele>
        <time>2017-07-02T10:43:05Z</time>
      </trkpt>
      <trkpt lat="42.37852" lon="0.14955">
        <ele>602.9</ele>
        <time>2017-07-02T10:43:07Z</time>
      </trkpt>
      <trkpt lat="42.37856" lon="0.14953">
        <ele>603.2</ele>
        <time>2017-07-02T10:43:09Z</time>
      </trkpt>
      <trkpt lat="42.37859" lon="0.14951">
        <ele>603.5</ele>
        <time>2017-07-02T10:43:11Z</time>
      </trkpt>
      <trkpt lat="42.37862" lon="0.14949">
        <ele>604.1</ele>
        <time>2017-07-02T10:43:13Z</time>
      </trkpt>
      <trkpt lat="42.37865" lon="0.14947">
        <ele>604.6</ele>
        <time>2017-07-02T10:43:15Z</time>
      </trkpt>
      <trkpt lat="42.37868" lon="0.14945">
        <ele>605</ele>
        <time>2017-07-02T10:43:17Z</time>
      </trkpt>
      <trkpt lat="42.3787" lon="0.14943">
        <ele>605.3</ele>
        <time>2017-07-02T10:43:19Z</time>
      </trkpt>
      <trkpt lat="42.37873" lon="0.14941">
        <ele>605.5</ele>
        <time>2017-07-02T10:43:21Z</time>
      </trkpt>
      <trkpt lat="42.37875" lon="0.14939">
        <ele>605.9</ele>
        <time>2017-07-02T10:43:23Z</time>
      </trkpt>
      <trkpt lat="42.37878" lon="0.14937">
        <ele>606.3</ele>
        <time>2017-07-02T10:43:25Z</time>
      </trkpt>
      <trkpt lat="42.37882" lon="0.14935">
        <ele>606.9</ele>
        <time>2017-07-02T10:43:27Z</time>
      </trkpt>
      <trkpt lat="42.37885" lon="0.14933">
        <ele>607.2</ele>
        <time>2017-07-02T10:43:29Z</time>
      </trkpt>
      <trkpt lat="42.37889" lon="0.14931">
        <ele>607.4</ele>
        <time>2017-07-02T10:43:31Z</time>
      </trkpt>
      <trkpt lat="42.37892" lon="0.14929">
        <ele>607.7</ele>
        <time>2017-07-02T10:43:33Z</time>
      </trkpt>
      <trkpt lat="42.37895" lon="0.14927">
        <ele>607.9</ele>
        <time>2017-07-02T10:43:35Z</time>
      </trkpt>
      <trkpt lat="42.37899" lon="0.14924">
        <ele>608.3</ele>
        <time>2017-07-02T10:43:37Z</time>
      </trkpt>
      <trkpt lat="42.37901" lon="0.14921">
        <ele>608.9</ele>
        <time>2017-07-02T10:43:39Z</time>
      </trkpt>
      <trkpt lat="42.37905" lon="0.14917">
        <ele>609.5</ele>
        <time>2017-07-02T10:43:41Z</time>
      </trkpt>
      <trkpt lat="42.37908" lon="0.14914">
        <ele>609.8</ele>
        <time>2017-07-02T10:43:43Z</time>
      </trkpt>
      <trkpt lat="42.37911" lon="0.14912">
        <ele>610.5</ele>
        <time>2017-07-02T10:43:45Z</time>
      </trkpt>
      <trkpt lat="42.37915" lon="0.1491">
        <ele>611.2</ele>
        <time>2017-07-02T10:43:47Z</time>
      </trkpt>
      <trkpt lat="42.37919" lon="0.14909">
        <ele>611.8</ele>
        <time>2017-07-02T10:43:49Z</time>
      </trkpt>
      <trkpt lat="42.37923" lon="0.14909">
        <ele>612.3</ele>
        <time>2017-07-02T10:43:51Z</time>
      </trkpt>
      <trkpt lat="42.37927" lon="0.14908">
        <ele>612.9</ele>
        <time>2017-07-02T10:43:53Z</time>
      </trkpt>
      <trkpt lat="42.37932" lon="0.14907">
        <ele>613.4</ele>
        <time>2017-07-02T10:43:55Z</time>
      </trkpt>
      <trkpt lat="42.37936" lon="0.14907">
        <ele>613.6</ele>
        <time>2017-07-02T10:43:57Z</time>
      </trkpt>
      <trkpt lat="42.37939" lon="0.14908">
        <ele>613.8</ele>
        <time>2017-07-02T10:43:59Z</time>
      </trkpt>
      <trkpt lat="42.37943" lon="0.14909">
        <ele>614</ele>
        <time>2017-07-02T10:44:01Z</time>
      </trkpt>
      <trkpt lat="42.37946" lon="0.14909">
        <ele>614.1</ele>
        <time>2017-07-02T10:44:03Z</time>
      </trkpt>
      <trkpt lat="42.37949" lon="0.14908">
        <ele>614.2</ele>
        <time>2017-07-02T10:44:05Z</time>
      </trkpt>
      <trkpt lat="42.37952" lon="0.14906">
        <ele>614.4</ele>
        <time>2017-07-02T10:44:07Z</time>
      </trkpt>
      <trkpt lat="42.37955" lon="0.14902">
        <ele>614.6</ele>
        <time>2017-07-02T10:44:09Z</time>
      </trkpt>
      <trkpt lat="42.37956" lon="0.14898">
        <ele>614.9</ele>
        <time>2017-07-02T10:44:11Z</time>
      </trkpt>
      <trkpt lat="42.37957" lon="0.14893">
        <ele>615.4</ele>
        <time>2017-07-02T10:44:13Z</time>
      </trkpt>
      <trkpt lat="42.37957" lon="0.14888">
        <ele>615.9</ele>
        <time>2017-07-02T10:44:15Z</time>
      </trkpt>
      <trkpt lat="42.37957" lon="0.14883">
        <ele>616.2</ele>
        <time>2017-07-02T10:44:17Z</time>
      </trkpt>
      <trkpt lat="42.37956" lon="0.14878">
        <ele>616.5</ele>
        <time>2017-07-02T10:44:19Z</time>
      </trkpt>
      <trkpt lat="42.37955" lon="0.14874">
        <ele>616.9</ele>
        <time>2017-07-02T10:44:21Z</time>
      </trkpt>
      <trkpt lat="42.37953" lon="0.1487">
        <ele>617.6</ele>
        <time>2017-07-02T10:44:23Z</time>
      </trkpt>
      <trkpt lat="42.37951" lon="0.14865">
        <ele>618</ele>
        <time>2017-07-02T10:44:25Z</time>
      </trkpt>
      <trkpt lat="42.3795" lon="0.14861">
        <ele>618.4</ele>
        <time>2017-07-02T10:44:27Z</time>
      </trkpt>
      <trkpt lat="42.37949" lon="0.14857">
        <ele>619</ele>
        <time>2017-07-02T10:44:29Z</time>
      </trkpt>
      <trkpt lat="42.37949" lon="0.14852">
        <ele>619.7</ele>
        <time>2017-07-02T10:44:31Z</time>
      </trkpt>
      <trkpt lat="42.37949" lon="0.14847">
        <ele>620.3</ele>
        <time>2017-07-02T10:44:33Z</time>
      </trkpt>
      <trkpt lat="42.37949" lon="0.14843">
        <ele>620.6</ele>
        <time>2017-07-02T10:44:35Z</time>
      </trkpt>
      <trkpt lat="42.37949" lon="0.14839">
        <ele>620.8</ele>
        <time>2017-07-02T10:44:37Z</time>
      </trkpt>
      <trkpt lat="42.37951" lon="0.14835">
        <ele>621.1</ele>
        <time>2017-07-02T10:44:39Z</time>
      </trkpt>
      <trkpt lat="42.37953" lon="0.14832">
        <ele>621.8</ele>
        <time>2017-07-02T10:44:41Z</time>
      </trkpt>
      <trkpt lat="42.37956" lon="0.14829">
        <ele>622.4</ele>
        <time>2017-07-02T10:44:43Z</time>
      </trkpt>
      <trkpt lat="42.37959" lon="0.14826">
        <ele>622.7</ele>
        <time>2017-07-02T10:44:45Z</time>
      </trkpt>
      <trkpt lat="42.3796" lon="0.14822">
        <ele>623</ele>
        <time>2017-07-02T10:44:47Z</time>
      </trkpt>
      <trkpt lat="42.37962" lon="0.14818">
        <ele>623.6</ele>
        <time>2017-07-02T10:44:50Z</time>
      </trkpt>
      <trkpt lat="42.37964" lon="0.14815">
        <ele>624.1</ele>
        <time>2017-07-02T10:44:52Z</time>
      </trkpt>
      <trkpt lat="42.37966" lon="0.14812">
        <ele>624.5</ele>
        <time>2017-07-02T10:44:54Z</time>
      </trkpt>
      <trkpt lat="42.37968" lon="0.14808">
        <ele>624.9</ele>
        <time>2017-07-02T10:44:57Z</time>
      </trkpt>
      <trkpt lat="42.37969" lon="0.14804">
        <ele>625.2</ele>
        <time>2017-07-02T10:45:00Z</time>
      </trkpt>
      <trkpt lat="42.37969" lon="0.14799">
        <ele>625.8</ele>
        <time>2017-07-02T10:45:03Z</time>
      </trkpt>
      <trkpt lat="42.37971" lon="0.14794">
        <ele>626.5</ele>
        <time>2017-07-02T10:45:06Z</time>
      </trkpt>
      <trkpt lat="42.37972" lon="0.14789">
        <ele>627.1</ele>
        <time>2017-07-02T10:45:09Z</time>
      </trkpt>
      <trkpt lat="42.37973" lon="0.14785">
        <ele>627.3</ele>
        <time>2017-07-02T10:45:11Z</time>
      </trkpt>
      <trkpt lat="42.37974" lon="0.1478">
        <ele>627.9</ele>
        <time>2017-07-02T10:45:14Z</time>
      </trkpt>
      <trkpt lat="42.37974" lon="0.14776">
        <ele>628.2</ele>
        <time>2017-07-02T10:45:16Z</time>
      </trkpt>
      <trkpt lat="42.37974" lon="0.14771">
        <ele>628.7</ele>
        <time>2017-07-02T10:45:19Z</time>
      </trkpt>
      <trkpt lat="42.37975" lon="0.14766">
        <ele>628.9</ele>
        <time>2017-07-02T10:45:22Z</time>
      </trkpt>
      <trkpt lat="42.37976" lon="0.14763">
        <ele>628.9</ele>
        <time>2017-07-02T10:45:24Z</time>
      </trkpt>
      <trkpt lat="42.37977" lon="0.1476">
        <ele>629</ele>
        <time>2017-07-02T10:45:26Z</time>
      </trkpt>
      <trkpt lat="42.3798" lon="0.14757">
        <ele>629.1</ele>
        <time>2017-07-02T10:45:28Z</time>
      </trkpt>
      <trkpt lat="42.37983" lon="0.14754">
        <ele>629.2</ele>
        <time>2017-07-02T10:45:30Z</time>
      </trkpt>
      <trkpt lat="42.37987" lon="0.1475">
        <ele>629.4</ele>
        <time>2017-07-02T10:45:32Z</time>
      </trkpt>
      <trkpt lat="42.3799" lon="0.14746">
        <ele>629.5</ele>
        <time>2017-07-02T10:45:34Z</time>
      </trkpt>
      <trkpt lat="42.37994" lon="0.14742">
        <ele>629.7</ele>
        <time>2017-07-02T10:45:36Z</time>
      </trkpt>
      <trkpt lat="42.37998" lon="0.14739">
        <ele>629.9</ele>
        <time>2017-07-02T10:45:38Z</time>
      </trkpt>
      <trkpt lat="42.38002" lon="0.14735">
        <ele>630.3</ele>
        <time>2017-07-02T10:45:40Z</time>
      </trkpt>
      <trkpt lat="42.38005" lon="0.14732">
        <ele>630.7</ele>
        <time>2017-07-02T10:45:42Z</time>
      </trkpt>
      <trkpt lat="42.38008" lon="0.14729">
        <ele>630.8</ele>
        <time>2017-07-02T10:45:44Z</time>
      </trkpt>
      <trkpt lat="42.38012" lon="0.14724">
        <ele>631</ele>
        <time>2017-07-02T10:45:46Z</time>
      </trkpt>
      <trkpt lat="42.38016" lon="0.1472">
        <ele>631.1</ele>
        <time>2017-07-02T10:45:48Z</time>
      </trkpt>
      <trkpt lat="42.38019" lon="0.14716">
        <ele>631.3</ele>
        <time>2017-07-02T10:45:50Z</time>
      </trkpt>
      <trkpt lat="42.38022" lon="0.1471">
        <ele>631.4</ele>
        <time>2017-07-02T10:45:52Z</time>
      </trkpt>
      <trkpt lat="42.38024" lon="0.14707">
        <ele>631.5</ele>
        <time>2017-07-02T10:45:53Z</time>
      </trkpt>
      <trkpt lat="42.38025" lon="0.14704">
        <ele>631.6</ele>
        <time>2017-07-02T10:45:54Z</time>
      </trkpt>
      <trkpt lat="42.38027" lon="0.14701">
        <ele>631.6</ele>
        <time>2017-07-02T10:45:55Z</time>
      </trkpt>
      <trkpt lat="42.3803" lon="0.14695">
        <ele>631.9</ele>
        <time>2017-07-02T10:45:57Z</time>
      </trkpt>
      <trkpt lat="42.38032" lon="0.14692">
        <ele>632.1</ele>
        <time>2017-07-02T10:45:58Z</time>
      </trkpt>
      <trkpt lat="42.38034" lon="0.14689">
        <ele>632.4</ele>
        <time>2017-07-02T10:45:59Z</time>
      </trkpt>
      <trkpt lat="42.38036" lon="0.14685">
        <ele>632.6</ele>
        <time>2017-07-02T10:46:00Z</time>
      </trkpt>
      <trkpt lat="42.38037" lon="0.14681">
        <ele>632.9</ele>
        <time>2017-07-02T10:46:01Z</time>
      </trkpt>
      <trkpt lat="42.38039" lon="0.14677">
        <ele>633</ele>
        <time>2017-07-02T10:46:02Z</time>
      </trkpt>
      <trkpt lat="42.38041" lon="0.14674">
        <ele>633.1</ele>
        <time>2017-07-02T10:46:03Z</time>
      </trkpt>
      <trkpt lat="42.38043" lon="0.1467">
        <ele>633.2</ele>
        <time>2017-07-02T10:46:04Z</time>
      </trkpt>
      <trkpt lat="42.38044" lon="0.14666">
        <ele>633.3</ele>
        <time>2017-07-02T10:46:05Z</time>
      </trkpt>
      <trkpt lat="42.38046" lon="0.14662">
        <ele>633.4</ele>
        <time>2017-07-02T10:46:06Z</time>
      </trkpt>
      <trkpt lat="42.38048" lon="0.14657">
        <ele>633.5</ele>
        <time>2017-07-02T10:46:07Z</time>
      </trkpt>
      <trkpt lat="42.38049" lon="0.14653">
        <ele>633.6</ele>
        <time>2017-07-02T10:46:08Z</time>
      </trkpt>
      <trkpt lat="42.38051" lon="0.1465">
        <ele>633.7</ele>
        <time>2017-07-02T10:46:09Z</time>
      </trkpt>
      <trkpt lat="42.38053" lon="0.14646">
        <ele>633.8</ele>
        <time>2017-07-02T10:46:10Z</time>
      </trkpt>
      <trkpt lat="42.38054" lon="0.14643">
        <ele>633.8</ele>
        <time>2017-07-02T10:46:11Z</time>
      </trkpt>
      <trkpt lat="42.38057" lon="0.14637">
        <ele>634</ele>
        <time>2017-07-02T10:46:13Z</time>
      </trkpt>
      <trkpt lat="42.38059" lon="0.14633">
        <ele>634.1</ele>
        <time>2017-07-02T10:46:14Z</time>
      </trkpt>
      <trkpt lat="42.3806" lon="0.1463">
        <ele>634.1</ele>
        <time>2017-07-02T10:46:15Z</time>
      </trkpt>
      <trkpt lat="42.38062" lon="0.14627">
        <ele>634.2</ele>
        <time>2017-07-02T10:46:16Z</time>
      </trkpt>
      <trkpt lat="42.38063" lon="0.14624">
        <ele>634.3</ele>
        <time>2017-07-02T10:46:17Z</time>
      </trkpt>
      <trkpt lat="42.38066" lon="0.14617">
        <ele>634.5</ele>
        <time>2017-07-02T10:46:19Z</time>
      </trkpt>
      <trkpt lat="42.38067" lon="0.14614">
        <ele>634.7</ele>
        <time>2017-07-02T10:46:20Z</time>
      </trkpt>
      <trkpt lat="42.38068" lon="0.1461">
        <ele>634.9</ele>
        <time>2017-07-02T10:46:21Z</time>
      </trkpt>
      <trkpt lat="42.3807" lon="0.14607">
        <ele>635.1</ele>
        <time>2017-07-02T10:46:22Z</time>
      </trkpt>
      <trkpt lat="42.38072" lon="0.14604">
        <ele>635.3</ele>
        <time>2017-07-02T10:46:23Z</time>
      </trkpt>
      <trkpt lat="42.38073" lon="0.146">
        <ele>635.4</ele>
        <time>2017-07-02T10:46:24Z</time>
      </trkpt>
      <trkpt lat="42.38075" lon="0.14597">
        <ele>635.5</ele>
        <time>2017-07-02T10:46:25Z</time>
      </trkpt>
      <trkpt lat="42.38076" lon="0.14593">
        <ele>635.6</ele>
        <time>2017-07-02T10:46:26Z</time>
      </trkpt>
      <trkpt lat="42.38078" lon="0.1459">
        <ele>635.7</ele>
        <time>2017-07-02T10:46:27Z</time>
      </trkpt>
      <trkpt lat="42.38079" lon="0.14586">
        <ele>635.8</ele>
        <time>2017-07-02T10:46:28Z</time>
      </trkpt>
      <trkpt lat="42.3808" lon="0.14583">
        <ele>635.9</ele>
        <time>2017-07-02T10:46:29Z</time>
      </trkpt>
      <trkpt lat="42.38082" lon="0.14576">
        <ele>636.1</ele>
        <time>2017-07-02T10:46:31Z</time>
      </trkpt>
      <trkpt lat="42.38082" lon="0.14573">
        <ele>636.2</ele>
        <time>2017-07-02T10:46:32Z</time>
      </trkpt>
      <trkpt lat="42.38083" lon="0.14569">
        <ele>636.3</ele>
        <time>2017-07-02T10:46:33Z</time>
      </trkpt>
      <trkpt lat="42.38083" lon="0.14565">
        <ele>636.4</ele>
        <time>2017-07-02T10:46:34Z</time>
      </trkpt>
      <trkpt lat="42.38084" lon="0.14562">
        <ele>636.5</ele>
        <time>2017-07-02T10:46:35Z</time>
      </trkpt>
      <trkpt lat="42.38085" lon="0.14555">
        <ele>636.7</ele>
        <time>2017-07-02T10:46:37Z</time>
      </trkpt>
      <trkpt lat="42.38085" lon="0.14548">
        <ele>637</ele>
        <time>2017-07-02T10:46:39Z</time>
      </trkpt>
      <trkpt lat="42.38085" lon="0.14541">
        <ele>637.4</ele>
        <time>2017-07-02T10:46:41Z</time>
      </trkpt>
      <trkpt lat="42.38084" lon="0.14535">
        <ele>637.8</ele>
        <time>2017-07-02T10:46:43Z</time>
      </trkpt>
      <trkpt lat="42.38084" lon="0.14528">
        <ele>638</ele>
        <time>2017-07-02T10:46:45Z</time>
      </trkpt>
      <trkpt lat="42.38084" lon="0.14522">
        <ele>638.1</ele>
        <time>2017-07-02T10:46:47Z</time>
      </trkpt>
      <trkpt lat="42.38084" lon="0.14515">
        <ele>638.3</ele>
        <time>2017-07-02T10:46:49Z</time>
      </trkpt>
      <trkpt lat="42.38087" lon="0.14509">
        <ele>638.4</ele>
        <time>2017-07-02T10:46:51Z</time>
      </trkpt>
      <trkpt lat="42.38089" lon="0.14503">
        <ele>638.6</ele>
        <time>2017-07-02T10:46:53Z</time>
      </trkpt>
      <trkpt lat="42.38092" lon="0.14498">
        <ele>639</ele>
        <time>2017-07-02T10:46:55Z</time>
      </trkpt>
      <trkpt lat="42.38094" lon="0.14492">
        <ele>639.3</ele>
        <time>2017-07-02T10:46:57Z</time>
      </trkpt>
      <trkpt lat="42.38096" lon="0.14486">
        <ele>639.7</ele>
        <time>2017-07-02T10:46:59Z</time>
      </trkpt>
      <trkpt lat="42.38099" lon="0.1448">
        <ele>639.9</ele>
        <time>2017-07-02T10:47:01Z</time>
      </trkpt>
      <trkpt lat="42.38102" lon="0.14475">
        <ele>640</ele>
        <time>2017-07-02T10:47:03Z</time>
      </trkpt>
      <trkpt lat="42.38104" lon="0.14472">
        <ele>640.1</ele>
        <time>2017-07-02T10:47:04Z</time>
      </trkpt>
      <trkpt lat="42.38105" lon="0.14468">
        <ele>640.1</ele>
        <time>2017-07-02T10:47:05Z</time>
      </trkpt>
      <trkpt lat="42.38106" lon="0.14465">
        <ele>640.2</ele>
        <time>2017-07-02T10:47:06Z</time>
      </trkpt>
      <trkpt lat="42.38107" lon="0.14461">
        <ele>640.2</ele>
        <time>2017-07-02T10:47:07Z</time>
      </trkpt>
      <trkpt lat="42.38108" lon="0.14458">
        <ele>640.3</ele>
        <time>2017-07-02T10:47:08Z</time>
      </trkpt>
      <trkpt lat="42.38109" lon="0.14454">
        <ele>640.3</ele>
        <time>2017-07-02T10:47:09Z</time>
      </trkpt>
      <trkpt lat="42.3811" lon="0.14451">
        <ele>640.4</ele>
        <time>2017-07-02T10:47:10Z</time>
      </trkpt>
      <trkpt lat="42.38112" lon="0.14445">
        <ele>640.5</ele>
        <time>2017-07-02T10:47:12Z</time>
      </trkpt>
      <trkpt lat="42.38114" lon="0.14438">
        <ele>640.6</ele>
        <time>2017-07-02T10:47:14Z</time>
      </trkpt>
      <trkpt lat="42.38116" lon="0.14435">
        <ele>640.7</ele>
        <time>2017-07-02T10:47:15Z</time>
      </trkpt>
      <trkpt lat="42.38118" lon="0.14432">
        <ele>640.7</ele>
        <time>2017-07-02T10:47:16Z</time>
      </trkpt>
      <trkpt lat="42.38121" lon="0.14426">
        <ele>641</ele>
        <time>2017-07-02T10:47:18Z</time>
      </trkpt>
      <trkpt lat="42.38125" lon="0.14422">
        <ele>641.5</ele>
        <time>2017-07-02T10:47:20Z</time>
      </trkpt>
      <trkpt lat="42.38129" lon="0.14417">
        <ele>642.1</ele>
        <time>2017-07-02T10:47:22Z</time>
      </trkpt>
      <trkpt lat="42.38132" lon="0.14414">
        <ele>642.5</ele>
        <time>2017-07-02T10:47:24Z</time>
      </trkpt>
      <trkpt lat="42.38136" lon="0.1441">
        <ele>642.9</ele>
        <time>2017-07-02T10:47:26Z</time>
      </trkpt>
      <trkpt lat="42.3814" lon="0.14407">
        <ele>643.4</ele>
        <time>2017-07-02T10:47:28Z</time>
      </trkpt>
      <trkpt lat="42.38144" lon="0.14404">
        <ele>644</ele>
        <time>2017-07-02T10:47:30Z</time>
      </trkpt>
      <trkpt lat="42.38148" lon="0.14401">
        <ele>644.4</ele>
        <time>2017-07-02T10:47:32Z</time>
      </trkpt>
      <trkpt lat="42.38151" lon="0.14397">
        <ele>644.7</ele>
        <time>2017-07-02T10:47:34Z</time>
      </trkpt>
      <trkpt lat="42.38155" lon="0.14394">
        <ele>644.9</ele>
        <time>2017-07-02T10:47:36Z</time>
      </trkpt>
      <trkpt lat="42.38159" lon="0.1439">
        <ele>645.2</ele>
        <time>2017-07-02T10:47:38Z</time>
      </trkpt>
      <trkpt lat="42.38162" lon="0.14386">
        <ele>645.7</ele>
        <time>2017-07-02T10:47:40Z</time>
      </trkpt>
      <trkpt lat="42.38166" lon="0.14382">
        <ele>646.2</ele>
        <time>2017-07-02T10:47:42Z</time>
      </trkpt>
      <trkpt lat="42.3817" lon="0.14377">
        <ele>646.6</ele>
        <time>2017-07-02T10:47:44Z</time>
      </trkpt>
      <trkpt lat="42.38172" lon="0.14374">
        <ele>646.8</ele>
        <time>2017-07-02T10:47:45Z</time>
      </trkpt>
      <trkpt lat="42.38174" lon="0.14371">
        <ele>646.9</ele>
        <time>2017-07-02T10:47:46Z</time>
      </trkpt>
      <trkpt lat="42.38175" lon="0.14369">
        <ele>647</ele>
        <time>2017-07-02T10:47:47Z</time>
      </trkpt>
      <trkpt lat="42.38179" lon="0.14363">
        <ele>647.2</ele>
        <time>2017-07-02T10:47:49Z</time>
      </trkpt>
      <trkpt lat="42.38182" lon="0.14358">
        <ele>647.5</ele>
        <time>2017-07-02T10:47:51Z</time>
      </trkpt>
      <trkpt lat="42.38185" lon="0.14353">
        <ele>647.9</ele>
        <time>2017-07-02T10:47:53Z</time>
      </trkpt>
      <trkpt lat="42.38188" lon="0.14347">
        <ele>648.5</ele>
        <time>2017-07-02T10:47:55Z</time>
      </trkpt>
      <trkpt lat="42.38192" lon="0.14342">
        <ele>648.7</ele>
        <time>2017-07-02T10:47:57Z</time>
      </trkpt>
      <trkpt lat="42.38195" lon="0.14338">
        <ele>648.8</ele>
        <time>2017-07-02T10:47:59Z</time>
      </trkpt>
      <trkpt lat="42.38199" lon="0.14334">
        <ele>648.9</ele>
        <time>2017-07-02T10:48:01Z</time>
      </trkpt>
      <trkpt lat="42.38203" lon="0.1433">
        <ele>649.1</ele>
        <time>2017-07-02T10:48:03Z</time>
      </trkpt>
      <trkpt lat="42.38207" lon="0.14325">
        <ele>649.2</ele>
        <time>2017-07-02T10:48:05Z</time>
      </trkpt>
      <trkpt lat="42.38209" lon="0.14323">
        <ele>649.3</ele>
        <time>2017-07-02T10:48:06Z</time>
      </trkpt>
      <trkpt lat="42.38212" lon="0.1432">
        <ele>649.4</ele>
        <time>2017-07-02T10:48:07Z</time>
      </trkpt>
      <trkpt lat="42.38214" lon="0.14318">
        <ele>649.5</ele>
        <time>2017-07-02T10:48:08Z</time>
      </trkpt>
      <trkpt lat="42.38216" lon="0.14315">
        <ele>649.6</ele>
        <time>2017-07-02T10:48:09Z</time>
      </trkpt>
      <trkpt lat="42.38221" lon="0.14311">
        <ele>649.9</ele>
        <time>2017-07-02T10:48:11Z</time>
      </trkpt>
      <trkpt lat="42.38223" lon="0.14308">
        <ele>650.1</ele>
        <time>2017-07-02T10:48:12Z</time>
      </trkpt>
      <trkpt lat="42.38225" lon="0.14306">
        <ele>650.4</ele>
        <time>2017-07-02T10:48:13Z</time>
      </trkpt>
      <trkpt lat="42.38228" lon="0.14304">
        <ele>650.8</ele>
        <time>2017-07-02T10:48:14Z</time>
      </trkpt>
      <trkpt lat="42.38232" lon="0.14301">
        <ele>651.2</ele>
        <time>2017-07-02T10:48:16Z</time>
      </trkpt>
      <trkpt lat="42.38237" lon="0.14299">
        <ele>651.4</ele>
        <time>2017-07-02T10:48:18Z</time>
      </trkpt>
      <trkpt lat="42.38241" lon="0.14296">
        <ele>651.6</ele>
        <time>2017-07-02T10:48:20Z</time>
      </trkpt>
      <trkpt lat="42.38246" lon="0.14293">
        <ele>651.8</ele>
        <time>2017-07-02T10:48:22Z</time>
      </trkpt>
      <trkpt lat="42.38248" lon="0.14291">
        <ele>651.9</ele>
        <time>2017-07-02T10:48:23Z</time>
      </trkpt>
      <trkpt lat="42.38251" lon="0.14289">
        <ele>652.1</ele>
        <time>2017-07-02T10:48:24Z</time>
      </trkpt>
      <trkpt lat="42.38253" lon="0.14288">
        <ele>652.2</ele>
        <time>2017-07-02T10:48:25Z</time>
      </trkpt>
      <trkpt lat="42.38256" lon="0.14287">
        <ele>652.3</ele>
        <time>2017-07-02T10:48:26Z</time>
      </trkpt>
      <trkpt lat="42.38261" lon="0.14284">
        <ele>652.9</ele>
        <time>2017-07-02T10:48:28Z</time>
      </trkpt>
      <trkpt lat="42.38264" lon="0.14283">
        <ele>653.2</ele>
        <time>2017-07-02T10:48:29Z</time>
      </trkpt>
      <trkpt lat="42.38268" lon="0.14281">
        <ele>653.5</ele>
        <time>2017-07-02T10:48:31Z</time>
      </trkpt>
      <trkpt lat="42.38271" lon="0.14279">
        <ele>653.6</ele>
        <time>2017-07-02T10:48:33Z</time>
      </trkpt>
      <trkpt lat="42.38275" lon="0.14277">
        <ele>653.8</ele>
        <time>2017-07-02T10:48:35Z</time>
      </trkpt>
      <trkpt lat="42.38279" lon="0.14276">
        <ele>653.9</ele>
        <time>2017-07-02T10:48:37Z</time>
      </trkpt>
      <trkpt lat="42.38284" lon="0.14275">
        <ele>654.1</ele>
        <time>2017-07-02T10:48:39Z</time>
      </trkpt>
      <trkpt lat="42.38288" lon="0.14274">
        <ele>654.3</ele>
        <time>2017-07-02T10:48:41Z</time>
      </trkpt>
      <trkpt lat="42.38293" lon="0.14274">
        <ele>654.5</ele>
        <time>2017-07-02T10:48:43Z</time>
      </trkpt>
      <trkpt lat="42.38298" lon="0.14273">
        <ele>654.7</ele>
        <time>2017-07-02T10:48:45Z</time>
      </trkpt>
      <trkpt lat="42.38303" lon="0.14272">
        <ele>655.1</ele>
        <time>2017-07-02T10:48:47Z</time>
      </trkpt>
      <trkpt lat="42.38308" lon="0.14269">
        <ele>655.6</ele>
        <time>2017-07-02T10:48:49Z</time>
      </trkpt>
      <trkpt lat="42.38311" lon="0.14268">
        <ele>655.8</ele>
        <time>2017-07-02T10:48:50Z</time>
      </trkpt>
      <trkpt lat="42.38316" lon="0.14266">
        <ele>656</ele>
        <time>2017-07-02T10:48:52Z</time>
      </trkpt>
      <trkpt lat="42.3832" lon="0.14265">
        <ele>656.1</ele>
        <time>2017-07-02T10:48:54Z</time>
      </trkpt>
      <trkpt lat="42.38324" lon="0.14264">
        <ele>656.3</ele>
        <time>2017-07-02T10:48:56Z</time>
      </trkpt>
      <trkpt lat="42.38329" lon="0.14263">
        <ele>656.4</ele>
        <time>2017-07-02T10:48:58Z</time>
      </trkpt>
      <trkpt lat="42.38333" lon="0.14262">
        <ele>656.6</ele>
        <time>2017-07-02T10:49:00Z</time>
      </trkpt>
      <trkpt lat="42.38338" lon="0.14261">
        <ele>656.7</ele>
        <time>2017-07-02T10:49:02Z</time>
      </trkpt>
      <trkpt lat="42.38343" lon="0.1426">
        <ele>656.9</ele>
        <time>2017-07-02T10:49:04Z</time>
      </trkpt>
      <trkpt lat="42.38348" lon="0.14258">
        <ele>657</ele>
        <time>2017-07-02T10:49:06Z</time>
      </trkpt>
      <trkpt lat="42.38352" lon="0.14257">
        <ele>657.5</ele>
        <time>2017-07-02T10:49:08Z</time>
      </trkpt>
      <trkpt lat="42.38357" lon="0.14255">
        <ele>658</ele>
        <time>2017-07-02T10:49:10Z</time>
      </trkpt>
      <trkpt lat="42.38362" lon="0.14254">
        <ele>658.3</ele>
        <time>2017-07-02T10:49:12Z</time>
      </trkpt>
      <trkpt lat="42.38366" lon="0.14254">
        <ele>658.5</ele>
        <time>2017-07-02T10:49:14Z</time>
      </trkpt>
      <trkpt lat="42.38371" lon="0.14253">
        <ele>658.7</ele>
        <time>2017-07-02T10:49:16Z</time>
      </trkpt>
      <trkpt lat="42.38375" lon="0.14251">
        <ele>659</ele>
        <time>2017-07-02T10:49:18Z</time>
      </trkpt>
      <trkpt lat="42.38379" lon="0.14249">
        <ele>659.2</ele>
        <time>2017-07-02T10:49:20Z</time>
      </trkpt>
      <trkpt lat="42.38384" lon="0.14248">
        <ele>659.7</ele>
        <time>2017-07-02T10:49:22Z</time>
      </trkpt>
      <trkpt lat="42.38387" lon="0.14246">
        <ele>660.2</ele>
        <time>2017-07-02T10:49:24Z</time>
      </trkpt>
      <trkpt lat="42.38391" lon="0.14245">
        <ele>660.7</ele>
        <time>2017-07-02T10:49:26Z</time>
      </trkpt>
      <trkpt lat="42.38394" lon="0.14243">
        <ele>661</ele>
        <time>2017-07-02T10:49:28Z</time>
      </trkpt>
      <trkpt lat="42.38397" lon="0.14242">
        <ele>661.3</ele>
        <time>2017-07-02T10:49:30Z</time>
      </trkpt>
      <trkpt lat="42.384" lon="0.14241">
        <ele>661.7</ele>
        <time>2017-07-02T10:49:32Z</time>
      </trkpt>
      <trkpt lat="42.38403" lon="0.14241">
        <ele>662.2</ele>
        <time>2017-07-02T10:49:34Z</time>
      </trkpt>
      <trkpt lat="42.38406" lon="0.1424">
        <ele>662.7</ele>
        <time>2017-07-02T10:49:36Z</time>
      </trkpt>
      <trkpt lat="42.38409" lon="0.1424">
        <ele>663.1</ele>
        <time>2017-07-02T10:49:38Z</time>
      </trkpt>
      <trkpt lat="42.38412" lon="0.1424">
        <ele>663.4</ele>
        <time>2017-07-02T10:49:40Z</time>
      </trkpt>
      <trkpt lat="42.38414" lon="0.14239">
        <ele>663.7</ele>
        <time>2017-07-02T10:49:42Z</time>
      </trkpt>
      <trkpt lat="42.38417" lon="0.14238">
        <ele>664.2</ele>
        <time>2017-07-02T10:49:44Z</time>
      </trkpt>
      <trkpt lat="42.3842" lon="0.14238">
        <ele>664.7</ele>
        <time>2017-07-02T10:49:46Z</time>
      </trkpt>
      <trkpt lat="42.38423" lon="0.14237">
        <ele>665.2</ele>
        <time>2017-07-02T10:49:48Z</time>
      </trkpt>
      <trkpt lat="42.38426" lon="0.14236">
        <ele>665.6</ele>
        <time>2017-07-02T10:49:50Z</time>
      </trkpt>
      <trkpt lat="42.38429" lon="0.14235">
        <ele>666</ele>
        <time>2017-07-02T10:49:52Z</time>
      </trkpt>
      <trkpt lat="42.38432" lon="0.14235">
        <ele>666.5</ele>
        <time>2017-07-02T10:49:54Z</time>
      </trkpt>
      <trkpt lat="42.38435" lon="0.14234">
        <ele>667</ele>
        <time>2017-07-02T10:49:56Z</time>
      </trkpt>
      <trkpt lat="42.38439" lon="0.14234">
        <ele>667.4</ele>
        <time>2017-07-02T10:49:58Z</time>
      </trkpt>
      <trkpt lat="42.38442" lon="0.14234">
        <ele>667.8</ele>
        <time>2017-07-02T10:50:00Z</time>
      </trkpt>
      <trkpt lat="42.38445" lon="0.14234">
        <ele>668.1</ele>
        <time>2017-07-02T10:50:02Z</time>
      </trkpt>
      <trkpt lat="42.38449" lon="0.14235">
        <ele>668.3</ele>
        <time>2017-07-02T10:50:04Z</time>
      </trkpt>
      <trkpt lat="42.38451" lon="0.14237">
        <ele>668.8</ele>
        <time>2017-07-02T10:50:06Z</time>
      </trkpt>
      <trkpt lat="42.38454" lon="0.14238">
        <ele>669.2</ele>
        <time>2017-07-02T10:50:08Z</time>
      </trkpt>
      <trkpt lat="42.38457" lon="0.1424">
        <ele>669.7</ele>
        <time>2017-07-02T10:50:10Z</time>
      </trkpt>
      <trkpt lat="42.3846" lon="0.14241">
        <ele>669.9</ele>
        <time>2017-07-02T10:50:12Z</time>
      </trkpt>
      <trkpt lat="42.38463" lon="0.14241">
        <ele>670</ele>
        <time>2017-07-02T10:50:14Z</time>
      </trkpt>
      <trkpt lat="42.38466" lon="0.14241">
        <ele>670.2</ele>
        <time>2017-07-02T10:50:16Z</time>
      </trkpt>
      <trkpt lat="42.38469" lon="0.14241">
        <ele>670.4</ele>
        <time>2017-07-02T10:50:18Z</time>
      </trkpt>
      <trkpt lat="42.38472" lon="0.14241">
        <ele>670.8</ele>
        <time>2017-07-02T10:50:20Z</time>
      </trkpt>
      <trkpt lat="42.38475" lon="0.1424">
        <ele>671.3</ele>
        <time>2017-07-02T10:50:22Z</time>
      </trkpt>
      <trkpt lat="42.38478" lon="0.14238">
        <ele>671.9</ele>
        <time>2017-07-02T10:50:24Z</time>
      </trkpt>
      <trkpt lat="42.38482" lon="0.14237">
        <ele>672.2</ele>
        <time>2017-07-02T10:50:26Z</time>
      </trkpt>
      <trkpt lat="42.38485" lon="0.14236">
        <ele>672.5</ele>
        <time>2017-07-02T10:50:28Z</time>
      </trkpt>
      <trkpt lat="42.38488" lon="0.14235">
        <ele>672.8</ele>
        <time>2017-07-02T10:50:30Z</time>
      </trkpt>
      <trkpt lat="42.38491" lon="0.14233">
        <ele>673.3</ele>
        <time>2017-07-02T10:50:32Z</time>
      </trkpt>
      <trkpt lat="42.38494" lon="0.14232">
        <ele>673.8</ele>
        <time>2017-07-02T10:50:34Z</time>
      </trkpt>
      <trkpt lat="42.38498" lon="0.1423">
        <ele>674.2</ele>
        <time>2017-07-02T10:50:36Z</time>
      </trkpt>
      <trkpt lat="42.38501" lon="0.14229">
        <ele>674.5</ele>
        <time>2017-07-02T10:50:38Z</time>
      </trkpt>
      <trkpt lat="42.38504" lon="0.14228">
        <ele>674.8</ele>
        <time>2017-07-02T10:50:40Z</time>
      </trkpt>
      <trkpt lat="42.38507" lon="0.14228">
        <ele>675.1</ele>
        <time>2017-07-02T10:50:42Z</time>
      </trkpt>
      <trkpt lat="42.38511" lon="0.14227">
        <ele>675.6</ele>
        <time>2017-07-02T10:50:44Z</time>
      </trkpt>
      <trkpt lat="42.38514" lon="0.14226">
        <ele>676</ele>
        <time>2017-07-02T10:50:46Z</time>
      </trkpt>
      <trkpt lat="42.38517" lon="0.14226">
        <ele>676.5</ele>
        <time>2017-07-02T10:50:48Z</time>
      </trkpt>
      <trkpt lat="42.38521" lon="0.14225">
        <ele>676.8</ele>
        <time>2017-07-02T10:50:50Z</time>
      </trkpt>
      <trkpt lat="42.38525" lon="0.14225">
        <ele>677.1</ele>
        <time>2017-07-02T10:50:52Z</time>
      </trkpt>
      <trkpt lat="42.38528" lon="0.14225">
        <ele>677.3</ele>
        <time>2017-07-02T10:50:54Z</time>
      </trkpt>
      <trkpt lat="42.38532" lon="0.14225">
        <ele>677.5</ele>
        <time>2017-07-02T10:50:56Z</time>
      </trkpt>
      <trkpt lat="42.38536" lon="0.14225">
        <ele>678.1</ele>
        <time>2017-07-02T10:50:58Z</time>
      </trkpt>
      <trkpt lat="42.3854" lon="0.14226">
        <ele>678.5</ele>
        <time>2017-07-02T10:51:00Z</time>
      </trkpt>
      <trkpt lat="42.38543" lon="0.1423">
        <ele>678.8</ele>
        <time>2017-07-02T10:51:02Z</time>
      </trkpt>
      <trkpt lat="42.38546" lon="0.14235">
        <ele>679</ele>
        <time>2017-07-02T10:51:04Z</time>
      </trkpt>
      <trkpt lat="42.38549" lon="0.14241">
        <ele>679.3</ele>
        <time>2017-07-02T10:51:06Z</time>
      </trkpt>
      <trkpt lat="42.38549" lon="0.14247">
        <ele>679.7</ele>
        <time>2017-07-02T10:51:08Z</time>
      </trkpt>
      <trkpt lat="42.38548" lon="0.14253">
        <ele>680.3</ele>
        <time>2017-07-02T10:51:10Z</time>
      </trkpt>
      <trkpt lat="42.38547" lon="0.1426">
        <ele>680.8</ele>
        <time>2017-07-02T10:51:12Z</time>
      </trkpt>
      <trkpt lat="42.38547" lon="0.14267">
        <ele>681.1</ele>
        <time>2017-07-02T10:51:14Z</time>
      </trkpt>
      <trkpt lat="42.38546" lon="0.14273">
        <ele>681.3</ele>
        <time>2017-07-02T10:51:16Z</time>
      </trkpt>
      <trkpt lat="42.38545" lon="0.1428">
        <ele>681.4</ele>
        <time>2017-07-02T10:51:18Z</time>
      </trkpt>
      <trkpt lat="42.38545" lon="0.14287">
        <ele>681.6</ele>
        <time>2017-07-02T10:51:20Z</time>
      </trkpt>
      <trkpt lat="42.38545" lon="0.14293">
        <ele>681.8</ele>
        <time>2017-07-02T10:51:22Z</time>
      </trkpt>
      <trkpt lat="42.38544" lon="0.143">
        <ele>682.2</ele>
        <time>2017-07-02T10:51:24Z</time>
      </trkpt>
      <trkpt lat="42.38543" lon="0.14304">
        <ele>682.4</ele>
        <time>2017-07-02T10:51:25Z</time>
      </trkpt>
      <trkpt lat="42.3854" lon="0.1431">
        <ele>683</ele>
        <time>2017-07-02T10:51:27Z</time>
      </trkpt>
      <trkpt lat="42.38538" lon="0.14316">
        <ele>683.3</ele>
        <time>2017-07-02T10:51:29Z</time>
      </trkpt>
      <trkpt lat="42.38536" lon="0.14322">
        <ele>683.5</ele>
        <time>2017-07-02T10:51:31Z</time>
      </trkpt>
      <trkpt lat="42.38533" lon="0.14328">
        <ele>683.8</ele>
        <time>2017-07-02T10:51:33Z</time>
      </trkpt>
      <trkpt lat="42.38532" lon="0.14334">
        <ele>684</ele>
        <time>2017-07-02T10:51:35Z</time>
      </trkpt>
      <trkpt lat="42.38531" lon="0.1434">
        <ele>684.3</ele>
        <time>2017-07-02T10:51:37Z</time>
      </trkpt>
      <trkpt lat="42.3853" lon="0.14346">
        <ele>684.9</ele>
        <time>2017-07-02T10:51:39Z</time>
      </trkpt>
      <trkpt lat="42.38528" lon="0.14352">
        <ele>685.6</ele>
        <time>2017-07-02T10:51:41Z</time>
      </trkpt>
      <trkpt lat="42.38525" lon="0.14358">
        <ele>686.1</ele>
        <time>2017-07-02T10:51:43Z</time>
      </trkpt>
      <trkpt lat="42.38524" lon="0.14363">
        <ele>686.5</ele>
        <time>2017-07-02T10:51:45Z</time>
      </trkpt>
      <trkpt lat="42.38522" lon="0.14369">
        <ele>687</ele>
        <time>2017-07-02T10:51:47Z</time>
      </trkpt>
      <trkpt lat="42.38522" lon="0.14376">
        <ele>687.7</ele>
        <time>2017-07-02T10:51:49Z</time>
      </trkpt>
      <trkpt lat="42.38524" lon="0.14381">
        <ele>688</ele>
        <time>2017-07-02T10:51:51Z</time>
      </trkpt>
      <trkpt lat="42.38528" lon="0.14384">
        <ele>688.3</ele>
        <time>2017-07-02T10:51:53Z</time>
      </trkpt>
      <trkpt lat="42.38533" lon="0.14382">
        <ele>688.8</ele>
        <time>2017-07-02T10:51:55Z</time>
      </trkpt>
      <trkpt lat="42.38536" lon="0.1438">
        <ele>689.2</ele>
        <time>2017-07-02T10:51:56Z</time>
      </trkpt>
      <trkpt lat="42.38538" lon="0.14377">
        <ele>689.6</ele>
        <time>2017-07-02T10:51:57Z</time>
      </trkpt>
      <trkpt lat="42.3854" lon="0.14374">
        <ele>689.9</ele>
        <time>2017-07-02T10:51:58Z</time>
      </trkpt>
      <trkpt lat="42.38543" lon="0.1437">
        <ele>690.2</ele>
        <time>2017-07-02T10:52:00Z</time>
      </trkpt>
      <trkpt lat="42.38546" lon="0.14366">
        <ele>690.4</ele>
        <time>2017-07-02T10:52:02Z</time>
      </trkpt>
      <trkpt lat="42.3855" lon="0.14363">
        <ele>690.6</ele>
        <time>2017-07-02T10:52:04Z</time>
      </trkpt>
      <trkpt lat="42.38554" lon="0.14359">
        <ele>690.9</ele>
        <time>2017-07-02T10:52:06Z</time>
      </trkpt>
      <trkpt lat="42.38557" lon="0.14356">
        <ele>691.2</ele>
        <time>2017-07-02T10:52:08Z</time>
      </trkpt>
      <trkpt lat="42.3856" lon="0.14352">
        <ele>691.7</ele>
        <time>2017-07-02T10:52:10Z</time>
      </trkpt>
      <trkpt lat="42.38563" lon="0.14349">
        <ele>692.2</ele>
        <time>2017-07-02T10:52:12Z</time>
      </trkpt>
      <trkpt lat="42.38566" lon="0.14346">
        <ele>692.5</ele>
        <time>2017-07-02T10:52:14Z</time>
      </trkpt>
      <trkpt lat="42.3857" lon="0.14343">
        <ele>692.8</ele>
        <time>2017-07-02T10:52:16Z</time>
      </trkpt>
      <trkpt lat="42.38574" lon="0.1434">
        <ele>693.2</ele>
        <time>2017-07-02T10:52:18Z</time>
      </trkpt>
      <trkpt lat="42.38577" lon="0.14336">
        <ele>693.9</ele>
        <time>2017-07-02T10:52:20Z</time>
      </trkpt>
      <trkpt lat="42.38581" lon="0.14334">
        <ele>694.5</ele>
        <time>2017-07-02T10:52:22Z</time>
      </trkpt>
      <trkpt lat="42.38584" lon="0.14332">
        <ele>694.9</ele>
        <time>2017-07-02T10:52:24Z</time>
      </trkpt>
      <trkpt lat="42.38588" lon="0.1433">
        <ele>695.2</ele>
        <time>2017-07-02T10:52:26Z</time>
      </trkpt>
      <trkpt lat="42.38591" lon="0.14327">
        <ele>695.6</ele>
        <time>2017-07-02T10:52:28Z</time>
      </trkpt>
      <trkpt lat="42.38593" lon="0.14325">
        <ele>696.1</ele>
        <time>2017-07-02T10:52:30Z</time>
      </trkpt>
      <trkpt lat="42.38597" lon="0.14324">
        <ele>696.6</ele>
        <time>2017-07-02T10:52:32Z</time>
      </trkpt>
      <trkpt lat="42.386" lon="0.14323">
        <ele>697.2</ele>
        <time>2017-07-02T10:52:34Z</time>
      </trkpt>
      <trkpt lat="42.38603" lon="0.14321">
        <ele>697.5</ele>
        <time>2017-07-02T10:52:36Z</time>
      </trkpt>
      <trkpt lat="42.38606" lon="0.14319">
        <ele>697.8</ele>
        <time>2017-07-02T10:52:38Z</time>
      </trkpt>
      <trkpt lat="42.38609" lon="0.14318">
        <ele>698.2</ele>
        <time>2017-07-02T10:52:40Z</time>
      </trkpt>
      <trkpt lat="42.38612" lon="0.14317">
        <ele>698.7</ele>
        <time>2017-07-02T10:52:42Z</time>
      </trkpt>
      <trkpt lat="42.38616" lon="0.14315">
        <ele>699.2</ele>
        <time>2017-07-02T10:52:44Z</time>
      </trkpt>
      <trkpt lat="42.38618" lon="0.14312">
        <ele>699.5</ele>
        <time>2017-07-02T10:52:46Z</time>
      </trkpt>
      <trkpt lat="42.38621" lon="0.1431">
        <ele>699.7</ele>
        <time>2017-07-02T10:52:48Z</time>
      </trkpt>
      <trkpt lat="42.38624" lon="0.14307">
        <ele>700.2</ele>
        <time>2017-07-02T10:52:50Z</time>
      </trkpt>
      <trkpt lat="42.38627" lon="0.14304">
        <ele>700.7</ele>
        <time>2017-07-02T10:52:52Z</time>
      </trkpt>
      <trkpt lat="42.38631" lon="0.14302">
        <ele>701.2</ele>
        <time>2017-07-02T10:52:54Z</time>
      </trkpt>
      <trkpt lat="42.38634" lon="0.143">
        <ele>701.6</ele>
        <time>2017-07-02T10:52:56Z</time>
      </trkpt>
      <trkpt lat="42.38637" lon="0.14298">
        <ele>702</ele>
        <time>2017-07-02T10:52:58Z</time>
      </trkpt>
      <trkpt lat="42.38641" lon="0.14297">
        <ele>702.2</ele>
        <time>2017-07-02T10:53:00Z</time>
      </trkpt>
      <trkpt lat="42.38645" lon="0.14294">
        <ele>702.5</ele>
        <time>2017-07-02T10:53:02Z</time>
      </trkpt>
      <trkpt lat="42.38648" lon="0.14292">
        <ele>702.7</ele>
        <time>2017-07-02T10:53:04Z</time>
      </trkpt>
      <trkpt lat="42.38651" lon="0.14291">
        <ele>703.2</ele>
        <time>2017-07-02T10:53:06Z</time>
      </trkpt>
      <trkpt lat="42.38655" lon="0.14289">
        <ele>703.7</ele>
        <time>2017-07-02T10:53:08Z</time>
      </trkpt>
      <trkpt lat="42.38658" lon="0.14288">
        <ele>704</ele>
        <time>2017-07-02T10:53:10Z</time>
      </trkpt>
      <trkpt lat="42.38662" lon="0.14286">
        <ele>704.1</ele>
        <time>2017-07-02T10:53:12Z</time>
      </trkpt>
      <trkpt lat="42.38666" lon="0.14284">
        <ele>704.4</ele>
        <time>2017-07-02T10:53:14Z</time>
      </trkpt>
      <trkpt lat="42.38668" lon="0.14283">
        <ele>704.5</ele>
        <time>2017-07-02T10:53:15Z</time>
      </trkpt>
      <trkpt lat="42.38673" lon="0.14282">
        <ele>705</ele>
        <time>2017-07-02T10:53:17Z</time>
      </trkpt>
      <trkpt lat="42.38677" lon="0.1428">
        <ele>705.6</ele>
        <time>2017-07-02T10:53:19Z</time>
      </trkpt>
      <trkpt lat="42.38681" lon="0.14278">
        <ele>706.1</ele>
        <time>2017-07-02T10:53:21Z</time>
      </trkpt>
      <trkpt lat="42.38685" lon="0.14276">
        <ele>706.3</ele>
        <time>2017-07-02T10:53:23Z</time>
      </trkpt>
      <trkpt lat="42.38689" lon="0.14275">
        <ele>706.5</ele>
        <time>2017-07-02T10:53:25Z</time>
      </trkpt>
      <trkpt lat="42.38692" lon="0.14272">
        <ele>706.7</ele>
        <time>2017-07-02T10:53:27Z</time>
      </trkpt>
      <trkpt lat="42.38695" lon="0.1427">
        <ele>707.1</ele>
        <time>2017-07-02T10:53:29Z</time>
      </trkpt>
      <trkpt lat="42.38699" lon="0.14268">
        <ele>707.5</ele>
        <time>2017-07-02T10:53:31Z</time>
      </trkpt>
      <trkpt lat="42.38702" lon="0.14266">
        <ele>707.8</ele>
        <time>2017-07-02T10:53:33Z</time>
      </trkpt>
      <trkpt lat="42.38705" lon="0.14264">
        <ele>708.1</ele>
        <time>2017-07-02T10:53:35Z</time>
      </trkpt>
      <trkpt lat="42.38708" lon="0.14262">
        <ele>708.3</ele>
        <time>2017-07-02T10:53:37Z</time>
      </trkpt>
      <trkpt lat="42.38712" lon="0.14259">
        <ele>708.4</ele>
        <time>2017-07-02T10:53:39Z</time>
      </trkpt>
      <trkpt lat="42.38715" lon="0.14257">
        <ele>708.6</ele>
        <time>2017-07-02T10:53:41Z</time>
      </trkpt>
      <trkpt lat="42.38719" lon="0.14254">
        <ele>708.7</ele>
        <time>2017-07-02T10:53:43Z</time>
      </trkpt>
      <trkpt lat="42.38721" lon="0.14251">
        <ele>708.8</ele>
        <time>2017-07-02T10:53:45Z</time>
      </trkpt>
      <trkpt lat="42.38724" lon="0.14247">
        <ele>708.9</ele>
        <time>2017-07-02T10:53:47Z</time>
      </trkpt>
      <trkpt lat="42.38726" lon="0.14243">
        <ele>709</ele>
        <time>2017-07-02T10:53:49Z</time>
      </trkpt>
      <trkpt lat="42.38729" lon="0.14239">
        <ele>709.2</ele>
        <time>2017-07-02T10:53:51Z</time>
      </trkpt>
      <trkpt lat="42.3873" lon="0.14234">
        <ele>709.5</ele>
        <time>2017-07-02T10:53:53Z</time>
      </trkpt>
      <trkpt lat="42.38732" lon="0.14229">
        <ele>709.9</ele>
        <time>2017-07-02T10:53:55Z</time>
      </trkpt>
      <trkpt lat="42.38734" lon="0.14224">
        <ele>710.3</ele>
        <time>2017-07-02T10:53:57Z</time>
      </trkpt>
      <trkpt lat="42.38736" lon="0.14219">
        <ele>710.6</ele>
        <time>2017-07-02T10:53:59Z</time>
      </trkpt>
      <trkpt lat="42.38739" lon="0.14213">
        <ele>710.8</ele>
        <time>2017-07-02T10:54:01Z</time>
      </trkpt>
      <trkpt lat="42.3874" lon="0.14208">
        <ele>711</ele>
        <time>2017-07-02T10:54:03Z</time>
      </trkpt>
      <trkpt lat="42.38742" lon="0.14204">
        <ele>711.1</ele>
        <time>2017-07-02T10:54:05Z</time>
      </trkpt>
      <trkpt lat="42.38744" lon="0.142">
        <ele>711.2</ele>
        <time>2017-07-02T10:54:07Z</time>
      </trkpt>
      <trkpt lat="42.38746" lon="0.14197">
        <ele>711.4</ele>
        <time>2017-07-02T10:54:09Z</time>
      </trkpt>
      <trkpt lat="42.38748" lon="0.14193">
        <ele>711.7</ele>
        <time>2017-07-02T10:54:11Z</time>
      </trkpt>
      <trkpt lat="42.38751" lon="0.14189">
        <ele>712</ele>
        <time>2017-07-02T10:54:13Z</time>
      </trkpt>
      <trkpt lat="42.38754" lon="0.14185">
        <ele>712.1</ele>
        <time>2017-07-02T10:54:15Z</time>
      </trkpt>
      <trkpt lat="42.38757" lon="0.14181">
        <ele>712.2</ele>
        <time>2017-07-02T10:54:17Z</time>
      </trkpt>
      <trkpt lat="42.3876" lon="0.14177">
        <ele>712.3</ele>
        <time>2017-07-02T10:54:19Z</time>
      </trkpt>
      <trkpt lat="42.38763" lon="0.14172">
        <ele>712.4</ele>
        <time>2017-07-02T10:54:21Z</time>
      </trkpt>
      <trkpt lat="42.38766" lon="0.14168">
        <ele>712.5</ele>
        <time>2017-07-02T10:54:23Z</time>
      </trkpt>
      <trkpt lat="42.38769" lon="0.14164">
        <ele>712.5</ele>
        <time>2017-07-02T10:54:25Z</time>
      </trkpt>
      <trkpt lat="42.38773" lon="0.14159">
        <ele>712.6</ele>
        <time>2017-07-02T10:54:27Z</time>
      </trkpt>
      <trkpt lat="42.38775" lon="0.14156">
        <ele>712.6</ele>
        <time>2017-07-02T10:54:28Z</time>
      </trkpt>
      <trkpt lat="42.38778" lon="0.14153">
        <ele>712.7</ele>
        <time>2017-07-02T10:54:29Z</time>
      </trkpt>
      <trkpt lat="42.38781" lon="0.1415">
        <ele>712.7</ele>
        <time>2017-07-02T10:54:30Z</time>
      </trkpt>
      <trkpt lat="42.38783" lon="0.14147">
        <ele>712.8</ele>
        <time>2017-07-02T10:54:31Z</time>
      </trkpt>
      <trkpt lat="42.38786" lon="0.14143">
        <ele>712.8</ele>
        <time>2017-07-02T10:54:32Z</time>
      </trkpt>
      <trkpt lat="42.38789" lon="0.14139">
        <ele>712.8</ele>
        <time>2017-07-02T10:54:33Z</time>
      </trkpt>
      <trkpt lat="42.38793" lon="0.14135">
        <ele>712.8</ele>
        <time>2017-07-02T10:54:34Z</time>
      </trkpt>
      <trkpt lat="42.38796" lon="0.14131">
        <ele>712.8</ele>
        <time>2017-07-02T10:54:35Z</time>
      </trkpt>
      <trkpt lat="42.38799" lon="0.14126">
        <ele>712.8</ele>
        <time>2017-07-02T10:54:36Z</time>
      </trkpt>
      <trkpt lat="42.38802" lon="0.14122">
        <ele>712.8</ele>
        <time>2017-07-02T10:54:37Z</time>
      </trkpt>
      <trkpt lat="42.38805" lon="0.14117">
        <ele>712.8</ele>
        <time>2017-07-02T10:54:38Z</time>
      </trkpt>
      <trkpt lat="42.38809" lon="0.14111">
        <ele>712.7</ele>
        <time>2017-07-02T10:54:39Z</time>
      </trkpt>
      <trkpt lat="42.38812" lon="0.14106">
        <ele>712.7</ele>
        <time>2017-07-02T10:54:40Z</time>
      </trkpt>
      <trkpt lat="42.38816" lon="0.14101">
        <ele>712.6</ele>
        <time>2017-07-02T10:54:41Z</time>
      </trkpt>
      <trkpt lat="42.3882" lon="0.14096">
        <ele>712.5</ele>
        <time>2017-07-02T10:54:42Z</time>
      </trkpt>
      <trkpt lat="42.38823" lon="0.14092">
        <ele>712.3</ele>
        <time>2017-07-02T10:54:43Z</time>
      </trkpt>
      <trkpt lat="42.38827" lon="0.14088">
        <ele>712.1</ele>
        <time>2017-07-02T10:54:44Z</time>
      </trkpt>
      <trkpt lat="42.38831" lon="0.14085">
        <ele>711.9</ele>
        <time>2017-07-02T10:54:45Z</time>
      </trkpt>
      <trkpt lat="42.38834" lon="0.14082">
        <ele>711.9</ele>
        <time>2017-07-02T10:54:46Z</time>
      </trkpt>
      <trkpt lat="42.38837" lon="0.1408">
        <ele>711.9</ele>
        <time>2017-07-02T10:54:47Z</time>
      </trkpt>
      <trkpt lat="42.3884" lon="0.14077">
        <ele>711.9</ele>
        <time>2017-07-02T10:54:48Z</time>
      </trkpt>
      <trkpt lat="42.38842" lon="0.14074">
        <ele>711.9</ele>
        <time>2017-07-02T10:54:49Z</time>
      </trkpt>
      <trkpt lat="42.38845" lon="0.14072">
        <ele>711.9</ele>
        <time>2017-07-02T10:54:50Z</time>
      </trkpt>
      <trkpt lat="42.38848" lon="0.14069">
        <ele>712</ele>
        <time>2017-07-02T10:54:51Z</time>
      </trkpt>
      <trkpt lat="42.3885" lon="0.14067">
        <ele>712.2</ele>
        <time>2017-07-02T10:54:52Z</time>
      </trkpt>
      <trkpt lat="42.38852" lon="0.14065">
        <ele>712.5</ele>
        <time>2017-07-02T10:54:53Z</time>
      </trkpt>
      <trkpt lat="42.38856" lon="0.1406">
        <ele>713.1</ele>
        <time>2017-07-02T10:54:55Z</time>
      </trkpt>
      <trkpt lat="42.38858" lon="0.14058">
        <ele>713.3</ele>
        <time>2017-07-02T10:54:56Z</time>
      </trkpt>
      <trkpt lat="42.38861" lon="0.14055">
        <ele>713.5</ele>
        <time>2017-07-02T10:54:57Z</time>
      </trkpt>
      <trkpt lat="42.38863" lon="0.14053">
        <ele>713.7</ele>
        <time>2017-07-02T10:54:58Z</time>
      </trkpt>
      <trkpt lat="42.38865" lon="0.1405">
        <ele>713.9</ele>
        <time>2017-07-02T10:54:59Z</time>
      </trkpt>
      <trkpt lat="42.38868" lon="0.14048">
        <ele>714.1</ele>
        <time>2017-07-02T10:55:00Z</time>
      </trkpt>
      <trkpt lat="42.3887" lon="0.14045">
        <ele>714.2</ele>
        <time>2017-07-02T10:55:01Z</time>
      </trkpt>
      <trkpt lat="42.38873" lon="0.14043">
        <ele>714.5</ele>
        <time>2017-07-02T10:55:02Z</time>
      </trkpt>
      <trkpt lat="42.38875" lon="0.1404">
        <ele>714.9</ele>
        <time>2017-07-02T10:55:03Z</time>
      </trkpt>
      <trkpt lat="42.38878" lon="0.14038">
        <ele>715.3</ele>
        <time>2017-07-02T10:55:04Z</time>
      </trkpt>
      <trkpt lat="42.38881" lon="0.14035">
        <ele>715.7</ele>
        <time>2017-07-02T10:55:05Z</time>
      </trkpt>
      <trkpt lat="42.38883" lon="0.14033">
        <ele>715.8</ele>
        <time>2017-07-02T10:55:06Z</time>
      </trkpt>
      <trkpt lat="42.38885" lon="0.1403">
        <ele>716</ele>
        <time>2017-07-02T10:55:07Z</time>
      </trkpt>
      <trkpt lat="42.38888" lon="0.14027">
        <ele>716.2</ele>
        <time>2017-07-02T10:55:08Z</time>
      </trkpt>
      <trkpt lat="42.3889" lon="0.14024">
        <ele>716.3</ele>
        <time>2017-07-02T10:55:09Z</time>
      </trkpt>
      <trkpt lat="42.38892" lon="0.14021">
        <ele>716.7</ele>
        <time>2017-07-02T10:55:10Z</time>
      </trkpt>
      <trkpt lat="42.38894" lon="0.14018">
        <ele>717.1</ele>
        <time>2017-07-02T10:55:11Z</time>
      </trkpt>
      <trkpt lat="42.38896" lon="0.14015">
        <ele>717.4</ele>
        <time>2017-07-02T10:55:12Z</time>
      </trkpt>
      <trkpt lat="42.38898" lon="0.14013">
        <ele>717.7</ele>
        <time>2017-07-02T10:55:13Z</time>
      </trkpt>
      <trkpt lat="42.38901" lon="0.1401">
        <ele>717.8</ele>
        <time>2017-07-02T10:55:14Z</time>
      </trkpt>
      <trkpt lat="42.38903" lon="0.14007">
        <ele>718</ele>
        <time>2017-07-02T10:55:15Z</time>
      </trkpt>
      <trkpt lat="42.38906" lon="0.14005">
        <ele>718.2</ele>
        <time>2017-07-02T10:55:16Z</time>
      </trkpt>
      <trkpt lat="42.38909" lon="0.14">
        <ele>718.5</ele>
        <time>2017-07-02T10:55:18Z</time>
      </trkpt>
      <trkpt lat="42.38912" lon="0.13996">
        <ele>719</ele>
        <time>2017-07-02T10:55:20Z</time>
      </trkpt>
      <trkpt lat="42.38915" lon="0.13991">
        <ele>719.4</ele>
        <time>2017-07-02T10:55:22Z</time>
      </trkpt>
      <trkpt lat="42.38918" lon="0.13988">
        <ele>719.7</ele>
        <time>2017-07-02T10:55:24Z</time>
      </trkpt>
      <trkpt lat="42.38921" lon="0.13984">
        <ele>719.9</ele>
        <time>2017-07-02T10:55:26Z</time>
      </trkpt>
      <trkpt lat="42.38923" lon="0.13981">
        <ele>720</ele>
        <time>2017-07-02T10:55:28Z</time>
      </trkpt>
      <trkpt lat="42.38927" lon="0.13976">
        <ele>720.1</ele>
        <time>2017-07-02T10:55:30Z</time>
      </trkpt>
      <trkpt lat="42.3893" lon="0.13972">
        <ele>720.2</ele>
        <time>2017-07-02T10:55:32Z</time>
      </trkpt>
      <trkpt lat="42.38933" lon="0.13967">
        <ele>720.3</ele>
        <time>2017-07-02T10:55:34Z</time>
      </trkpt>
      <trkpt lat="42.38936" lon="0.13961">
        <ele>720.4</ele>
        <time>2017-07-02T10:55:36Z</time>
      </trkpt>
      <trkpt lat="42.38938" lon="0.13955">
        <ele>720.5</ele>
        <time>2017-07-02T10:55:38Z</time>
      </trkpt>
      <trkpt lat="42.38941" lon="0.1395">
        <ele>720.6</ele>
        <time>2017-07-02T10:55:40Z</time>
      </trkpt>
      <trkpt lat="42.38943" lon="0.13944">
        <ele>720.7</ele>
        <time>2017-07-02T10:55:42Z</time>
      </trkpt>
      <trkpt lat="42.38945" lon="0.13941">
        <ele>720.9</ele>
        <time>2017-07-02T10:55:43Z</time>
      </trkpt>
      <trkpt lat="42.38948" lon="0.13935">
        <ele>721.4</ele>
        <time>2017-07-02T10:55:45Z</time>
      </trkpt>
      <trkpt lat="42.3895" lon="0.13929">
        <ele>722</ele>
        <time>2017-07-02T10:55:47Z</time>
      </trkpt>
      <trkpt lat="42.38953" lon="0.13923">
        <ele>722.4</ele>
        <time>2017-07-02T10:55:49Z</time>
      </trkpt>
      <trkpt lat="42.38955" lon="0.13918">
        <ele>722.6</ele>
        <time>2017-07-02T10:55:51Z</time>
      </trkpt>
      <trkpt lat="42.38957" lon="0.13912">
        <ele>722.9</ele>
        <time>2017-07-02T10:55:53Z</time>
      </trkpt>
      <trkpt lat="42.38959" lon="0.13908">
        <ele>723.1</ele>
        <time>2017-07-02T10:55:55Z</time>
      </trkpt>
      <trkpt lat="42.38961" lon="0.13904">
        <ele>723.4</ele>
        <time>2017-07-02T10:55:57Z</time>
      </trkpt>
      <trkpt lat="42.38963" lon="0.13899">
        <ele>723.9</ele>
        <time>2017-07-02T10:55:59Z</time>
      </trkpt>
      <trkpt lat="42.38966" lon="0.13895">
        <ele>724.5</ele>
        <time>2017-07-02T10:56:01Z</time>
      </trkpt>
      <trkpt lat="42.38968" lon="0.1389">
        <ele>724.9</ele>
        <time>2017-07-02T10:56:03Z</time>
      </trkpt>
      <trkpt lat="42.3897" lon="0.13884">
        <ele>725.3</ele>
        <time>2017-07-02T10:56:05Z</time>
      </trkpt>
      <trkpt lat="42.38972" lon="0.13879">
        <ele>725.8</ele>
        <time>2017-07-02T10:56:07Z</time>
      </trkpt>
      <trkpt lat="42.38974" lon="0.13875">
        <ele>726.4</ele>
        <time>2017-07-02T10:56:09Z</time>
      </trkpt>
      <trkpt lat="42.38976" lon="0.13871">
        <ele>726.8</ele>
        <time>2017-07-02T10:56:11Z</time>
      </trkpt>
      <trkpt lat="42.38977" lon="0.13868">
        <ele>727.1</ele>
        <time>2017-07-02T10:56:13Z</time>
      </trkpt>
      <trkpt lat="42.38979" lon="0.13864">
        <ele>727.7</ele>
        <time>2017-07-02T10:56:15Z</time>
      </trkpt>
      <trkpt lat="42.38981" lon="0.1386">
        <ele>728.3</ele>
        <time>2017-07-02T10:56:17Z</time>
      </trkpt>
      <trkpt lat="42.38982" lon="0.13856">
        <ele>728.9</ele>
        <time>2017-07-02T10:56:19Z</time>
      </trkpt>
      <trkpt lat="42.38984" lon="0.13852">
        <ele>729.4</ele>
        <time>2017-07-02T10:56:21Z</time>
      </trkpt>
      <trkpt lat="42.38985" lon="0.13848">
        <ele>729.7</ele>
        <time>2017-07-02T10:56:23Z</time>
      </trkpt>
      <trkpt lat="42.38987" lon="0.13844">
        <ele>730.2</ele>
        <time>2017-07-02T10:56:25Z</time>
      </trkpt>
      <trkpt lat="42.38989" lon="0.1384">
        <ele>730.7</ele>
        <time>2017-07-02T10:56:27Z</time>
      </trkpt>
      <trkpt lat="42.38991" lon="0.13836">
        <ele>731.3</ele>
        <time>2017-07-02T10:56:29Z</time>
      </trkpt>
      <trkpt lat="42.38992" lon="0.13832">
        <ele>731.5</ele>
        <time>2017-07-02T10:56:31Z</time>
      </trkpt>
      <trkpt lat="42.38993" lon="0.13827">
        <ele>731.8</ele>
        <time>2017-07-02T10:56:33Z</time>
      </trkpt>
      <trkpt lat="42.38994" lon="0.13822">
        <ele>732.1</ele>
        <time>2017-07-02T10:56:35Z</time>
      </trkpt>
      <trkpt lat="42.38996" lon="0.13818">
        <ele>732.7</ele>
        <time>2017-07-02T10:56:37Z</time>
      </trkpt>
      <trkpt lat="42.38997" lon="0.13814">
        <ele>733.3</ele>
        <time>2017-07-02T10:56:39Z</time>
      </trkpt>
      <trkpt lat="42.38999" lon="0.13809">
        <ele>733.9</ele>
        <time>2017-07-02T10:56:41Z</time>
      </trkpt>
      <trkpt lat="42.39001" lon="0.13805">
        <ele>734.2</ele>
        <time>2017-07-02T10:56:43Z</time>
      </trkpt>
      <trkpt lat="42.39003" lon="0.13801">
        <ele>734.6</ele>
        <time>2017-07-02T10:56:45Z</time>
      </trkpt>
      <trkpt lat="42.39007" lon="0.13797">
        <ele>735.1</ele>
        <time>2017-07-02T10:56:47Z</time>
      </trkpt>
      <trkpt lat="42.39009" lon="0.13793">
        <ele>735.6</ele>
        <time>2017-07-02T10:56:49Z</time>
      </trkpt>
      <trkpt lat="42.39011" lon="0.13789">
        <ele>735.8</ele>
        <time>2017-07-02T10:56:51Z</time>
      </trkpt>
      <trkpt lat="42.39012" lon="0.13786">
        <ele>736</ele>
        <time>2017-07-02T10:56:53Z</time>
      </trkpt>
      <trkpt lat="42.39014" lon="0.13782">
        <ele>736.2</ele>
        <time>2017-07-02T10:56:55Z</time>
      </trkpt>
      <trkpt lat="42.39016" lon="0.13778">
        <ele>736.3</ele>
        <time>2017-07-02T10:56:57Z</time>
      </trkpt>
      <trkpt lat="42.39018" lon="0.13774">
        <ele>736.6</ele>
        <time>2017-07-02T10:56:59Z</time>
      </trkpt>
      <trkpt lat="42.39021" lon="0.1377">
        <ele>737</ele>
        <time>2017-07-02T10:57:01Z</time>
      </trkpt>
      <trkpt lat="42.39023" lon="0.13766">
        <ele>737.5</ele>
        <time>2017-07-02T10:57:03Z</time>
      </trkpt>
      <trkpt lat="42.39026" lon="0.13762">
        <ele>738</ele>
        <time>2017-07-02T10:57:05Z</time>
      </trkpt>
      <trkpt lat="42.39028" lon="0.13758">
        <ele>738.3</ele>
        <time>2017-07-02T10:57:07Z</time>
      </trkpt>
      <trkpt lat="42.3903" lon="0.13754">
        <ele>738.7</ele>
        <time>2017-07-02T10:57:09Z</time>
      </trkpt>
      <trkpt lat="42.39033" lon="0.1375">
        <ele>739.1</ele>
        <time>2017-07-02T10:57:11Z</time>
      </trkpt>
      <trkpt lat="42.39035" lon="0.13746">
        <ele>739.6</ele>
        <time>2017-07-02T10:57:13Z</time>
      </trkpt>
      <trkpt lat="42.39037" lon="0.13742">
        <ele>740.1</ele>
        <time>2017-07-02T10:57:15Z</time>
      </trkpt>
      <trkpt lat="42.39039" lon="0.13738">
        <ele>740.5</ele>
        <time>2017-07-02T10:57:17Z</time>
      </trkpt>
      <trkpt lat="42.39041" lon="0.13734">
        <ele>740.8</ele>
        <time>2017-07-02T10:57:19Z</time>
      </trkpt>
      <trkpt lat="42.39043" lon="0.13729">
        <ele>741.1</ele>
        <time>2017-07-02T10:57:21Z</time>
      </trkpt>
      <trkpt lat="42.39045" lon="0.13724">
        <ele>741.6</ele>
        <time>2017-07-02T10:57:23Z</time>
      </trkpt>
      <trkpt lat="42.39047" lon="0.13718">
        <ele>742.2</ele>
        <time>2017-07-02T10:57:25Z</time>
      </trkpt>
      <trkpt lat="42.39049" lon="0.13713">
        <ele>742.8</ele>
        <time>2017-07-02T10:57:27Z</time>
      </trkpt>
      <trkpt lat="42.39052" lon="0.13708">
        <ele>743.1</ele>
        <time>2017-07-02T10:57:29Z</time>
      </trkpt>
      <trkpt lat="42.39055" lon="0.13703">
        <ele>743.4</ele>
        <time>2017-07-02T10:57:31Z</time>
      </trkpt>
      <trkpt lat="42.39057" lon="0.13699">
        <ele>743.9</ele>
        <time>2017-07-02T10:57:33Z</time>
      </trkpt>
      <trkpt lat="42.3906" lon="0.13694">
        <ele>744.6</ele>
        <time>2017-07-02T10:57:35Z</time>
      </trkpt>
      <trkpt lat="42.39063" lon="0.1369">
        <ele>745.1</ele>
        <time>2017-07-02T10:57:37Z</time>
      </trkpt>
      <trkpt lat="42.39066" lon="0.13685">
        <ele>745.3</ele>
        <time>2017-07-02T10:57:39Z</time>
      </trkpt>
      <trkpt lat="42.39069" lon="0.1368">
        <ele>745.6</ele>
        <time>2017-07-02T10:57:41Z</time>
      </trkpt>
      <trkpt lat="42.39071" lon="0.13675">
        <ele>745.8</ele>
        <time>2017-07-02T10:57:43Z</time>
      </trkpt>
      <trkpt lat="42.39073" lon="0.1367">
        <ele>746.3</ele>
        <time>2017-07-02T10:57:45Z</time>
      </trkpt>
      <trkpt lat="42.39076" lon="0.13665">
        <ele>746.7</ele>
        <time>2017-07-02T10:57:47Z</time>
      </trkpt>
      <trkpt lat="42.3908" lon="0.1366">
        <ele>746.8</ele>
        <time>2017-07-02T10:57:49Z</time>
      </trkpt>
      <trkpt lat="42.39083" lon="0.13654">
        <ele>746.9</ele>
        <time>2017-07-02T10:57:51Z</time>
      </trkpt>
      <trkpt lat="42.39086" lon="0.1365">
        <ele>747</ele>
        <time>2017-07-02T10:57:53Z</time>
      </trkpt>
      <trkpt lat="42.3909" lon="0.13646">
        <ele>747.1</ele>
        <time>2017-07-02T10:57:55Z</time>
      </trkpt>
      <trkpt lat="42.39094" lon="0.13642">
        <ele>747.1</ele>
        <time>2017-07-02T10:57:57Z</time>
      </trkpt>
      <trkpt lat="42.39097" lon="0.13639">
        <ele>747.2</ele>
        <time>2017-07-02T10:57:59Z</time>
      </trkpt>
      <trkpt lat="42.39101" lon="0.13635">
        <ele>747.2</ele>
        <time>2017-07-02T10:58:01Z</time>
      </trkpt>
      <trkpt lat="42.39106" lon="0.13631">
        <ele>747.2</ele>
        <time>2017-07-02T10:58:03Z</time>
      </trkpt>
      <trkpt lat="42.39108" lon="0.13628">
        <ele>747.3</ele>
        <time>2017-07-02T10:58:04Z</time>
      </trkpt>
      <trkpt lat="42.39111" lon="0.13625">
        <ele>747.3</ele>
        <time>2017-07-02T10:58:05Z</time>
      </trkpt>
      <trkpt lat="42.39114" lon="0.13623">
        <ele>747.3</ele>
        <time>2017-07-02T10:58:06Z</time>
      </trkpt>
      <trkpt lat="42.39117" lon="0.13621">
        <ele>747.3</ele>
        <time>2017-07-02T10:58:07Z</time>
      </trkpt>
      <trkpt lat="42.39119" lon="0.13618">
        <ele>747.3</ele>
        <time>2017-07-02T10:58:08Z</time>
      </trkpt>
      <trkpt lat="42.39122" lon="0.13616">
        <ele>747.4</ele>
        <time>2017-07-02T10:58:09Z</time>
      </trkpt>
      <trkpt lat="42.39124" lon="0.13614">
        <ele>747.4</ele>
        <time>2017-07-02T10:58:10Z</time>
      </trkpt>
      <trkpt lat="42.39127" lon="0.13612">
        <ele>747.4</ele>
        <time>2017-07-02T10:58:11Z</time>
      </trkpt>
      <trkpt lat="42.3913" lon="0.13609">
        <ele>747.4</ele>
        <time>2017-07-02T10:58:12Z</time>
      </trkpt>
      <trkpt lat="42.39133" lon="0.13607">
        <ele>747.4</ele>
        <time>2017-07-02T10:58:13Z</time>
      </trkpt>
      <trkpt lat="42.39136" lon="0.13605">
        <ele>747.5</ele>
        <time>2017-07-02T10:58:14Z</time>
      </trkpt>
      <trkpt lat="42.39139" lon="0.13603">
        <ele>747.5</ele>
        <time>2017-07-02T10:58:15Z</time>
      </trkpt>
      <trkpt lat="42.39143" lon="0.13601">
        <ele>747.5</ele>
        <time>2017-07-02T10:58:16Z</time>
      </trkpt>
      <trkpt lat="42.39146" lon="0.136">
        <ele>747.6</ele>
        <time>2017-07-02T10:58:17Z</time>
      </trkpt>
      <trkpt lat="42.3915" lon="0.13599">
        <ele>747.6</ele>
        <time>2017-07-02T10:58:18Z</time>
      </trkpt>
      <trkpt lat="42.39154" lon="0.13598">
        <ele>747.7</ele>
        <time>2017-07-02T10:58:19Z</time>
      </trkpt>
      <trkpt lat="42.39158" lon="0.13598">
        <ele>747.7</ele>
        <time>2017-07-02T10:58:20Z</time>
      </trkpt>
      <trkpt lat="42.39161" lon="0.13597">
        <ele>747.8</ele>
        <time>2017-07-02T10:58:21Z</time>
      </trkpt>
      <trkpt lat="42.39166" lon="0.13596">
        <ele>747.9</ele>
        <time>2017-07-02T10:58:23Z</time>
      </trkpt>
      <trkpt lat="42.39169" lon="0.13595">
        <ele>748</ele>
        <time>2017-07-02T10:58:24Z</time>
      </trkpt>
      <trkpt lat="42.39171" lon="0.13595">
        <ele>748.1</ele>
        <time>2017-07-02T10:58:25Z</time>
      </trkpt>
      <trkpt lat="42.39176" lon="0.13594">
        <ele>748.7</ele>
        <time>2017-07-02T10:58:27Z</time>
      </trkpt>
      <trkpt lat="42.39181" lon="0.13593">
        <ele>749.5</ele>
        <time>2017-07-02T10:58:29Z</time>
      </trkpt>
      <trkpt lat="42.39186" lon="0.13592">
        <ele>750.1</ele>
        <time>2017-07-02T10:58:31Z</time>
      </trkpt>
      <trkpt lat="42.39191" lon="0.13591">
        <ele>750.7</ele>
        <time>2017-07-02T10:58:33Z</time>
      </trkpt>
      <trkpt lat="42.39196" lon="0.1359">
        <ele>751.7</ele>
        <time>2017-07-02T10:58:35Z</time>
      </trkpt>
      <trkpt lat="42.39201" lon="0.13589">
        <ele>752.4</ele>
        <time>2017-07-02T10:58:37Z</time>
      </trkpt>
      <trkpt lat="42.39203" lon="0.13589">
        <ele>752.8</ele>
        <time>2017-07-02T10:58:38Z</time>
      </trkpt>
      <trkpt lat="42.39207" lon="0.13588">
        <ele>753.3</ele>
        <time>2017-07-02T10:58:39Z</time>
      </trkpt>
      <trkpt lat="42.3921" lon="0.13587">
        <ele>754</ele>
        <time>2017-07-02T10:58:40Z</time>
      </trkpt>
      <trkpt lat="42.39213" lon="0.13586">
        <ele>754.4</ele>
        <time>2017-07-02T10:58:41Z</time>
      </trkpt>
      <trkpt lat="42.39216" lon="0.13584">
        <ele>754.7</ele>
        <time>2017-07-02T10:58:42Z</time>
      </trkpt>
      <trkpt lat="42.39218" lon="0.13583">
        <ele>755.1</ele>
        <time>2017-07-02T10:58:43Z</time>
      </trkpt>
      <trkpt lat="42.39221" lon="0.13582">
        <ele>755.5</ele>
        <time>2017-07-02T10:58:44Z</time>
      </trkpt>
      <trkpt lat="42.39223" lon="0.1358">
        <ele>755.8</ele>
        <time>2017-07-02T10:58:45Z</time>
      </trkpt>
      <trkpt lat="42.39226" lon="0.13579">
        <ele>756.2</ele>
        <time>2017-07-02T10:58:46Z</time>
      </trkpt>
      <trkpt lat="42.39229" lon="0.13577">
        <ele>756.4</ele>
        <time>2017-07-02T10:58:47Z</time>
      </trkpt>
      <trkpt lat="42.39231" lon="0.13575">
        <ele>756.5</ele>
        <time>2017-07-02T10:58:48Z</time>
      </trkpt>
      <trkpt lat="42.39233" lon="0.13572">
        <ele>756.6</ele>
        <time>2017-07-02T10:58:49Z</time>
      </trkpt>
      <trkpt lat="42.39235" lon="0.13569">
        <ele>756.7</ele>
        <time>2017-07-02T10:58:50Z</time>
      </trkpt>
      <trkpt lat="42.39238" lon="0.13566">
        <ele>756.9</ele>
        <time>2017-07-02T10:58:51Z</time>
      </trkpt>
      <trkpt lat="42.3924" lon="0.13563">
        <ele>757</ele>
        <time>2017-07-02T10:58:52Z</time>
      </trkpt>
      <trkpt lat="42.39242" lon="0.13559">
        <ele>757.3</ele>
        <time>2017-07-02T10:58:53Z</time>
      </trkpt>
      <trkpt lat="42.39244" lon="0.13556">
        <ele>757.6</ele>
        <time>2017-07-02T10:58:54Z</time>
      </trkpt>
      <trkpt lat="42.39246" lon="0.13553">
        <ele>757.9</ele>
        <time>2017-07-02T10:58:55Z</time>
      </trkpt>
      <trkpt lat="42.39248" lon="0.13548">
        <ele>758.3</ele>
        <time>2017-07-02T10:58:57Z</time>
      </trkpt>
      <trkpt lat="42.39251" lon="0.13542">
        <ele>758.5</ele>
        <time>2017-07-02T10:58:59Z</time>
      </trkpt>
      <trkpt lat="42.39255" lon="0.13536">
        <ele>758.6</ele>
        <time>2017-07-02T10:59:01Z</time>
      </trkpt>
      <trkpt lat="42.39256" lon="0.13532">
        <ele>758.6</ele>
        <time>2017-07-02T10:59:02Z</time>
      </trkpt>
      <trkpt lat="42.39258" lon="0.13529">
        <ele>758.7</ele>
        <time>2017-07-02T10:59:03Z</time>
      </trkpt>
      <trkpt lat="42.3926" lon="0.13525">
        <ele>758.7</ele>
        <time>2017-07-02T10:59:04Z</time>
      </trkpt>
      <trkpt lat="42.39262" lon="0.13521">
        <ele>758.7</ele>
        <time>2017-07-02T10:59:05Z</time>
      </trkpt>
      <trkpt lat="42.39263" lon="0.13517">
        <ele>758.7</ele>
        <time>2017-07-02T10:59:06Z</time>
      </trkpt>
      <trkpt lat="42.39265" lon="0.13513">
        <ele>758.7</ele>
        <time>2017-07-02T10:59:07Z</time>
      </trkpt>
      <trkpt lat="42.39267" lon="0.13509">
        <ele>758.7</ele>
        <time>2017-07-02T10:59:08Z</time>
      </trkpt>
      <trkpt lat="42.39269" lon="0.13504">
        <ele>758.7</ele>
        <time>2017-07-02T10:59:09Z</time>
      </trkpt>
      <trkpt lat="42.3927" lon="0.135">
        <ele>758.7</ele>
        <time>2017-07-02T10:59:10Z</time>
      </trkpt>
      <trkpt lat="42.39272" lon="0.13496">
        <ele>758.7</ele>
        <time>2017-07-02T10:59:11Z</time>
      </trkpt>
      <trkpt lat="42.39274" lon="0.13492">
        <ele>758.7</ele>
        <time>2017-07-02T10:59:12Z</time>
      </trkpt>
      <trkpt lat="42.39277" lon="0.13488">
        <ele>758.7</ele>
        <time>2017-07-02T10:59:13Z</time>
      </trkpt>
      <trkpt lat="42.3928" lon="0.13484">
        <ele>758.7</ele>
        <time>2017-07-02T10:59:14Z</time>
      </trkpt>
      <trkpt lat="42.39283" lon="0.1348">
        <ele>758.6</ele>
        <time>2017-07-02T10:59:15Z</time>
      </trkpt>
      <trkpt lat="42.39288" lon="0.13474">
        <ele>758.5</ele>
        <time>2017-07-02T10:59:16Z</time>
      </trkpt>
      <trkpt lat="42.39292" lon="0.13468">
        <ele>758.4</ele>
        <time>2017-07-02T10:59:17Z</time>
      </trkpt>
      <trkpt lat="42.39297" lon="0.13462">
        <ele>758.1</ele>
        <time>2017-07-02T10:59:18Z</time>
      </trkpt>
      <trkpt lat="42.39302" lon="0.13455">
        <ele>757.7</ele>
        <time>2017-07-02T10:59:19Z</time>
      </trkpt>
      <trkpt lat="42.39307" lon="0.13447">
        <ele>757.2</ele>
        <time>2017-07-02T10:59:20Z</time>
      </trkpt>
      <trkpt lat="42.39312" lon="0.13439">
        <ele>756.7</ele>
        <time>2017-07-02T10:59:21Z</time>
      </trkpt>
      <trkpt lat="42.39317" lon="0.1343">
        <ele>756</ele>
        <time>2017-07-02T10:59:22Z</time>
      </trkpt>
      <trkpt lat="42.39319" lon="0.13422">
        <ele>755.5</ele>
        <time>2017-07-02T10:59:23Z</time>
      </trkpt>
      <trkpt lat="42.39317" lon="0.13414">
        <ele>755</ele>
        <time>2017-07-02T10:59:24Z</time>
      </trkpt>
      <trkpt lat="42.39318" lon="0.13406">
        <ele>754.4</ele>
        <time>2017-07-02T10:59:25Z</time>
      </trkpt>
      <trkpt lat="42.39319" lon="0.13399">
        <ele>753.9</ele>
        <time>2017-07-02T10:59:26Z</time>
      </trkpt>
      <trkpt lat="42.3932" lon="0.1339">
        <ele>753.3</ele>
        <time>2017-07-02T10:59:27Z</time>
      </trkpt>
      <trkpt lat="42.39321" lon="0.1338">
        <ele>752.6</ele>
        <time>2017-07-02T10:59:28Z</time>
      </trkpt>
      <trkpt lat="42.39321" lon="0.1337">
        <ele>752</ele>
        <time>2017-07-02T10:59:29Z</time>
      </trkpt>
      <trkpt lat="42.3932" lon="0.1336">
        <ele>751.5</ele>
        <time>2017-07-02T10:59:30Z</time>
      </trkpt>
      <trkpt lat="42.39319" lon="0.1335">
        <ele>751</ele>
        <time>2017-07-02T10:59:31Z</time>
      </trkpt>
      <trkpt lat="42.3932" lon="0.1334">
        <ele>750.6</ele>
        <time>2017-07-02T10:59:32Z</time>
      </trkpt>
      <trkpt lat="42.39321" lon="0.13329">
        <ele>750.1</ele>
        <time>2017-07-02T10:59:33Z</time>
      </trkpt>
      <trkpt lat="42.39321" lon="0.13319">
        <ele>749.7</ele>
        <time>2017-07-02T10:59:34Z</time>
      </trkpt>
      <trkpt lat="42.39322" lon="0.13311">
        <ele>749.3</ele>
        <time>2017-07-02T10:59:35Z</time>
      </trkpt>
      <trkpt lat="42.39323" lon="0.13303">
        <ele>748.9</ele>
        <time>2017-07-02T10:59:36Z</time>
      </trkpt>
      <trkpt lat="42.39324" lon="0.13296">
        <ele>748.6</ele>
        <time>2017-07-02T10:59:37Z</time>
      </trkpt>
      <trkpt lat="42.39325" lon="0.13288">
        <ele>748.2</ele>
        <time>2017-07-02T10:59:38Z</time>
      </trkpt>
      <trkpt lat="42.39327" lon="0.13283">
        <ele>747.9</ele>
        <time>2017-07-02T10:59:39Z</time>
      </trkpt>
      <trkpt lat="42.3933" lon="0.13277">
        <ele>747.5</ele>
        <time>2017-07-02T10:59:40Z</time>
      </trkpt>
      <trkpt lat="42.39334" lon="0.1327">
        <ele>747</ele>
        <time>2017-07-02T10:59:41Z</time>
      </trkpt>
      <trkpt lat="42.39338" lon="0.13265">
        <ele>746.5</ele>
        <time>2017-07-02T10:59:42Z</time>
      </trkpt>
      <trkpt lat="42.39342" lon="0.1326">
        <ele>746.1</ele>
        <time>2017-07-02T10:59:43Z</time>
      </trkpt>
      <trkpt lat="42.39345" lon="0.13254">
        <ele>745.6</ele>
        <time>2017-07-02T10:59:44Z</time>
      </trkpt>
      <trkpt lat="42.39348" lon="0.13246">
        <ele>745</ele>
        <time>2017-07-02T10:59:45Z</time>
      </trkpt>
      <trkpt lat="42.39349" lon="0.13237">
        <ele>744.5</ele>
        <time>2017-07-02T10:59:46Z</time>
      </trkpt>
      <trkpt lat="42.39352" lon="0.13229">
        <ele>743.9</ele>
        <time>2017-07-02T10:59:47Z</time>
      </trkpt>
      <trkpt lat="42.39356" lon="0.13222">
        <ele>743.3</ele>
        <time>2017-07-02T10:59:48Z</time>
      </trkpt>
      <trkpt lat="42.39361" lon="0.13216">
        <ele>742.8</ele>
        <time>2017-07-02T10:59:49Z</time>
      </trkpt>
      <trkpt lat="42.39365" lon="0.13209">
        <ele>742.3</ele>
        <time>2017-07-02T10:59:50Z</time>
      </trkpt>
      <trkpt lat="42.39371" lon="0.13203">
        <ele>741.8</ele>
        <time>2017-07-02T10:59:51Z</time>
      </trkpt>
      <trkpt lat="42.39375" lon="0.13197">
        <ele>741.3</ele>
        <time>2017-07-02T10:59:52Z</time>
      </trkpt>
      <trkpt lat="42.39381" lon="0.13191">
        <ele>740.8</ele>
        <time>2017-07-02T10:59:53Z</time>
      </trkpt>
      <trkpt lat="42.39385" lon="0.13185">
        <ele>740.3</ele>
        <time>2017-07-02T10:59:54Z</time>
      </trkpt>
      <trkpt lat="42.39391" lon="0.1318">
        <ele>739.8</ele>
        <time>2017-07-02T10:59:55Z</time>
      </trkpt>
      <trkpt lat="42.39396" lon="0.13176">
        <ele>739.3</ele>
        <time>2017-07-02T10:59:56Z</time>
      </trkpt>
      <trkpt lat="42.39401" lon="0.1317">
        <ele>738.8</ele>
        <time>2017-07-02T10:59:57Z</time>
      </trkpt>
      <trkpt lat="42.39411" lon="0.13165">
        <ele>738</ele>
        <time>2017-07-02T10:59:58Z</time>
      </trkpt>
      <trkpt lat="42.39409" lon="0.13158">
        <ele>737.5</ele>
        <time>2017-07-02T10:59:59Z</time>
      </trkpt>
      <trkpt lat="42.3941" lon="0.13152">
        <ele>737.1</ele>
        <time>2017-07-02T11:00:00Z</time>
      </trkpt>
      <trkpt lat="42.3941" lon="0.13145">
        <ele>736.8</ele>
        <time>2017-07-02T11:00:01Z</time>
      </trkpt>
      <trkpt lat="42.39412" lon="0.13139">
        <ele>736.4</ele>
        <time>2017-07-02T11:00:02Z</time>
      </trkpt>
      <trkpt lat="42.39412" lon="0.13134">
        <ele>736.3</ele>
        <time>2017-07-02T11:00:03Z</time>
      </trkpt>
      <trkpt lat="42.39415" lon="0.13129">
        <ele>736.1</ele>
        <time>2017-07-02T11:00:04Z</time>
      </trkpt>
      <trkpt lat="42.39419" lon="0.13122">
        <ele>735.7</ele>
        <time>2017-07-02T11:00:05Z</time>
      </trkpt>
      <trkpt lat="42.39418" lon="0.13113">
        <ele>735.4</ele>
        <time>2017-07-02T11:00:06Z</time>
      </trkpt>
      <trkpt lat="42.39419" lon="0.13106">
        <ele>735.1</ele>
        <time>2017-07-02T11:00:07Z</time>
      </trkpt>
      <trkpt lat="42.39418" lon="0.13099">
        <ele>734.9</ele>
        <time>2017-07-02T11:00:08Z</time>
      </trkpt>
      <trkpt lat="42.39418" lon="0.13092">
        <ele>734.7</ele>
        <time>2017-07-02T11:00:09Z</time>
      </trkpt>
      <trkpt lat="42.39422" lon="0.13085">
        <ele>734.6</ele>
        <time>2017-07-02T11:00:10Z</time>
      </trkpt>
      <trkpt lat="42.39425" lon="0.13079">
        <ele>734.5</ele>
        <time>2017-07-02T11:00:11Z</time>
      </trkpt>
      <trkpt lat="42.39428" lon="0.13073">
        <ele>734.4</ele>
        <time>2017-07-02T11:00:12Z</time>
      </trkpt>
      <trkpt lat="42.39431" lon="0.13067">
        <ele>734.4</ele>
        <time>2017-07-02T11:00:13Z</time>
      </trkpt>
      <trkpt lat="42.39435" lon="0.13063">
        <ele>734.3</ele>
        <time>2017-07-02T11:00:14Z</time>
      </trkpt>
      <trkpt lat="42.39438" lon="0.13059">
        <ele>734.3</ele>
        <time>2017-07-02T11:00:15Z</time>
      </trkpt>
      <trkpt lat="42.39444" lon="0.13055">
        <ele>734.3</ele>
        <time>2017-07-02T11:00:16Z</time>
      </trkpt>
      <trkpt lat="42.39448" lon="0.13051">
        <ele>734.2</ele>
        <time>2017-07-02T11:00:17Z</time>
      </trkpt>
      <trkpt lat="42.39451" lon="0.13046">
        <ele>734.2</ele>
        <time>2017-07-02T11:00:18Z</time>
      </trkpt>
      <trkpt lat="42.39454" lon="0.13041">
        <ele>734.1</ele>
        <time>2017-07-02T11:00:19Z</time>
      </trkpt>
      <trkpt lat="42.39458" lon="0.13036">
        <ele>734</ele>
        <time>2017-07-02T11:00:20Z</time>
      </trkpt>
      <trkpt lat="42.39463" lon="0.13031">
        <ele>733.9</ele>
        <time>2017-07-02T11:00:21Z</time>
      </trkpt>
      <trkpt lat="42.39457" lon="0.13023">
        <ele>733.7</ele>
        <time>2017-07-02T11:00:22Z</time>
      </trkpt>
      <trkpt lat="42.3946" lon="0.13019">
        <ele>733.5</ele>
        <time>2017-07-02T11:00:23Z</time>
      </trkpt>
      <trkpt lat="42.39463" lon="0.1302">
        <ele>733.4</ele>
        <time>2017-07-02T11:00:24Z</time>
      </trkpt>
      <trkpt lat="42.39466" lon="0.13015">
        <ele>733.2</ele>
        <time>2017-07-02T11:00:25Z</time>
      </trkpt>
      <trkpt lat="42.39472" lon="0.13011">
        <ele>732.9</ele>
        <time>2017-07-02T11:00:26Z</time>
      </trkpt>
      <trkpt lat="42.39475" lon="0.13005">
        <ele>732.7</ele>
        <time>2017-07-02T11:00:27Z</time>
      </trkpt>
      <trkpt lat="42.39478" lon="0.13">
        <ele>732.6</ele>
        <time>2017-07-02T11:00:28Z</time>
      </trkpt>
      <trkpt lat="42.39481" lon="0.12996">
        <ele>732.5</ele>
        <time>2017-07-02T11:00:29Z</time>
      </trkpt>
      <trkpt lat="42.39484" lon="0.1299">
        <ele>732.4</ele>
        <time>2017-07-02T11:00:30Z</time>
      </trkpt>
      <trkpt lat="42.39486" lon="0.12983">
        <ele>732.4</ele>
        <time>2017-07-02T11:00:31Z</time>
      </trkpt>
      <trkpt lat="42.39489" lon="0.12976">
        <ele>732.3</ele>
        <time>2017-07-02T11:00:32Z</time>
      </trkpt>
      <trkpt lat="42.39491" lon="0.1297">
        <ele>732.3</ele>
        <time>2017-07-02T11:00:33Z</time>
      </trkpt>
      <trkpt lat="42.39495" lon="0.12965">
        <ele>732.3</ele>
        <time>2017-07-02T11:00:34Z</time>
      </trkpt>
      <trkpt lat="42.39496" lon="0.12958">
        <ele>732.3</ele>
        <time>2017-07-02T11:00:35Z</time>
      </trkpt>
      <trkpt lat="42.395" lon="0.12952">
        <ele>732.2</ele>
        <time>2017-07-02T11:00:36Z</time>
      </trkpt>
      <trkpt lat="42.39501" lon="0.12945">
        <ele>732.2</ele>
        <time>2017-07-02T11:00:37Z</time>
      </trkpt>
      <trkpt lat="42.39502" lon="0.1294">
        <ele>732.2</ele>
        <time>2017-07-02T11:00:38Z</time>
      </trkpt>
      <trkpt lat="42.39503" lon="0.12933">
        <ele>732.2</ele>
        <time>2017-07-02T11:00:39Z</time>
      </trkpt>
      <trkpt lat="42.39503" lon="0.12928">
        <ele>732.2</ele>
        <time>2017-07-02T11:00:40Z</time>
      </trkpt>
      <trkpt lat="42.39504" lon="0.12922">
        <ele>732.1</ele>
        <time>2017-07-02T11:00:41Z</time>
      </trkpt>
      <trkpt lat="42.39505" lon="0.12917">
        <ele>732.1</ele>
        <time>2017-07-02T11:00:42Z</time>
      </trkpt>
      <trkpt lat="42.39507" lon="0.12912">
        <ele>732.1</ele>
        <time>2017-07-02T11:00:43Z</time>
      </trkpt>
      <trkpt lat="42.39509" lon="0.12907">
        <ele>732</ele>
        <time>2017-07-02T11:00:44Z</time>
      </trkpt>
      <trkpt lat="42.39514" lon="0.12902">
        <ele>732</ele>
        <time>2017-07-02T11:00:45Z</time>
      </trkpt>
      <trkpt lat="42.39518" lon="0.12897">
        <ele>731.8</ele>
        <time>2017-07-02T11:00:46Z</time>
      </trkpt>
      <trkpt lat="42.3952" lon="0.12892">
        <ele>731.7</ele>
        <time>2017-07-02T11:00:47Z</time>
      </trkpt>
      <trkpt lat="42.39523" lon="0.12887">
        <ele>731.6</ele>
        <time>2017-07-02T11:00:48Z</time>
      </trkpt>
      <trkpt lat="42.39526" lon="0.12883">
        <ele>731.6</ele>
        <time>2017-07-02T11:00:49Z</time>
      </trkpt>
      <trkpt lat="42.39529" lon="0.12878">
        <ele>731.6</ele>
        <time>2017-07-02T11:00:50Z</time>
      </trkpt>
      <trkpt lat="42.39531" lon="0.12876">
        <ele>731.6</ele>
        <time>2017-07-02T11:00:51Z</time>
      </trkpt>
      <trkpt lat="42.39535" lon="0.12874">
        <ele>731.8</ele>
        <time>2017-07-02T11:00:52Z</time>
      </trkpt>
      <trkpt lat="42.39539" lon="0.1287">
        <ele>732.1</ele>
        <time>2017-07-02T11:00:54Z</time>
      </trkpt>
      <trkpt lat="42.39541" lon="0.12868">
        <ele>732.3</ele>
        <time>2017-07-02T11:00:55Z</time>
      </trkpt>
      <trkpt lat="42.39543" lon="0.12865">
        <ele>732.4</ele>
        <time>2017-07-02T11:00:56Z</time>
      </trkpt>
      <trkpt lat="42.39546" lon="0.12861">
        <ele>732.6</ele>
        <time>2017-07-02T11:00:58Z</time>
      </trkpt>
      <trkpt lat="42.3955" lon="0.12861">
        <ele>732.9</ele>
        <time>2017-07-02T11:00:59Z</time>
      </trkpt>
      <trkpt lat="42.39553" lon="0.12859">
        <ele>733.1</ele>
        <time>2017-07-02T11:01:00Z</time>
      </trkpt>
      <trkpt lat="42.39557" lon="0.12856">
        <ele>733.4</ele>
        <time>2017-07-02T11:01:02Z</time>
      </trkpt>
      <trkpt lat="42.3956" lon="0.12852">
        <ele>733.5</ele>
        <time>2017-07-02T11:01:04Z</time>
      </trkpt>
      <trkpt lat="42.39563" lon="0.12849">
        <ele>733.6</ele>
        <time>2017-07-02T11:01:06Z</time>
      </trkpt>
      <trkpt lat="42.39566" lon="0.12847">
        <ele>733.6</ele>
        <time>2017-07-02T11:01:08Z</time>
      </trkpt>
      <trkpt lat="42.3957" lon="0.12844">
        <ele>733.7</ele>
        <time>2017-07-02T11:01:10Z</time>
      </trkpt>
      <trkpt lat="42.39573" lon="0.12841">
        <ele>733.8</ele>
        <time>2017-07-02T11:01:12Z</time>
      </trkpt>
      <trkpt lat="42.39577" lon="0.12838">
        <ele>733.9</ele>
        <time>2017-07-02T11:01:14Z</time>
      </trkpt>
      <trkpt lat="42.3958" lon="0.12835">
        <ele>734</ele>
        <time>2017-07-02T11:01:16Z</time>
      </trkpt>
      <trkpt lat="42.39584" lon="0.12832">
        <ele>734</ele>
        <time>2017-07-02T11:01:18Z</time>
      </trkpt>
      <trkpt lat="42.39586" lon="0.12828">
        <ele>734.2</ele>
        <time>2017-07-02T11:01:20Z</time>
      </trkpt>
      <trkpt lat="42.3959" lon="0.12824">
        <ele>734.4</ele>
        <time>2017-07-02T11:01:22Z</time>
      </trkpt>
      <trkpt lat="42.39594" lon="0.1282">
        <ele>734.7</ele>
        <time>2017-07-02T11:01:24Z</time>
      </trkpt>
      <trkpt lat="42.39597" lon="0.12817">
        <ele>734.9</ele>
        <time>2017-07-02T11:01:26Z</time>
      </trkpt>
      <trkpt lat="42.39601" lon="0.12814">
        <ele>735</ele>
        <time>2017-07-02T11:01:28Z</time>
      </trkpt>
      <trkpt lat="42.39606" lon="0.12811">
        <ele>735.1</ele>
        <time>2017-07-02T11:01:30Z</time>
      </trkpt>
      <trkpt lat="42.39608" lon="0.12809">
        <ele>735.2</ele>
        <time>2017-07-02T11:01:31Z</time>
      </trkpt>
      <trkpt lat="42.39613" lon="0.12807">
        <ele>735.3</ele>
        <time>2017-07-02T11:01:33Z</time>
      </trkpt>
      <trkpt lat="42.39617" lon="0.12807">
        <ele>735.4</ele>
        <time>2017-07-02T11:01:35Z</time>
      </trkpt>
      <trkpt lat="42.3962" lon="0.12806">
        <ele>735.7</ele>
        <time>2017-07-02T11:01:37Z</time>
      </trkpt>
      <trkpt lat="42.39624" lon="0.12804">
        <ele>736</ele>
        <time>2017-07-02T11:01:39Z</time>
      </trkpt>
      <trkpt lat="42.39627" lon="0.12802">
        <ele>736.1</ele>
        <time>2017-07-02T11:01:41Z</time>
      </trkpt>
      <trkpt lat="42.39631" lon="0.12799">
        <ele>736.1</ele>
        <time>2017-07-02T11:01:43Z</time>
      </trkpt>
      <trkpt lat="42.39634" lon="0.12797">
        <ele>736.2</ele>
        <time>2017-07-02T11:01:45Z</time>
      </trkpt>
      <trkpt lat="42.39638" lon="0.12795">
        <ele>736.2</ele>
        <time>2017-07-02T11:01:47Z</time>
      </trkpt>
      <trkpt lat="42.39641" lon="0.12793">
        <ele>736.3</ele>
        <time>2017-07-02T11:01:49Z</time>
      </trkpt>
      <trkpt lat="42.39645" lon="0.1279">
        <ele>736.4</ele>
        <time>2017-07-02T11:01:51Z</time>
      </trkpt>
      <trkpt lat="42.3965" lon="0.12786">
        <ele>736.4</ele>
        <time>2017-07-02T11:01:53Z</time>
      </trkpt>
      <trkpt lat="42.39652" lon="0.12784">
        <ele>736.5</ele>
        <time>2017-07-02T11:01:54Z</time>
      </trkpt>
      <trkpt lat="42.39656" lon="0.12781">
        <ele>736.7</ele>
        <time>2017-07-02T11:01:56Z</time>
      </trkpt>
      <trkpt lat="42.39659" lon="0.12778">
        <ele>736.9</ele>
        <time>2017-07-02T11:01:58Z</time>
      </trkpt>
      <trkpt lat="42.39661" lon="0.12775">
        <ele>737.3</ele>
        <time>2017-07-02T11:02:00Z</time>
      </trkpt>
      <trkpt lat="42.39664" lon="0.12773">
        <ele>737.6</ele>
        <time>2017-07-02T11:02:02Z</time>
      </trkpt>
      <trkpt lat="42.39666" lon="0.1277">
        <ele>737.9</ele>
        <time>2017-07-02T11:02:05Z</time>
      </trkpt>
      <trkpt lat="42.39666" lon="0.12767">
        <ele>738.3</ele>
        <time>2017-07-02T11:02:08Z</time>
      </trkpt>
      <trkpt lat="42.39668" lon="0.12762">
        <ele>738.8</ele>
        <time>2017-07-02T11:02:11Z</time>
      </trkpt>
      <trkpt lat="42.39669" lon="0.12758">
        <ele>739.3</ele>
        <time>2017-07-02T11:02:14Z</time>
      </trkpt>
      <trkpt lat="42.39669" lon="0.12754">
        <ele>739.7</ele>
        <time>2017-07-02T11:02:16Z</time>
      </trkpt>
      <trkpt lat="42.39668" lon="0.1275">
        <ele>740.2</ele>
        <time>2017-07-02T11:02:19Z</time>
      </trkpt>
      <trkpt lat="42.39667" lon="0.12744">
        <ele>740.5</ele>
        <time>2017-07-02T11:02:22Z</time>
      </trkpt>
      <trkpt lat="42.39666" lon="0.12739">
        <ele>740.8</ele>
        <time>2017-07-02T11:02:25Z</time>
      </trkpt>
      <trkpt lat="42.39664" lon="0.12737">
        <ele>741.2</ele>
        <time>2017-07-02T11:02:27Z</time>
      </trkpt>
      <trkpt lat="42.39661" lon="0.12733">
        <ele>741.5</ele>
        <time>2017-07-02T11:02:30Z</time>
      </trkpt>
      <trkpt lat="42.39658" lon="0.12732">
        <ele>741.7</ele>
        <time>2017-07-02T11:02:32Z</time>
      </trkpt>
      <trkpt lat="42.39654" lon="0.12733">
        <ele>741.9</ele>
        <time>2017-07-02T11:02:34Z</time>
      </trkpt>
      <trkpt lat="42.39651" lon="0.12734">
        <ele>742.1</ele>
        <time>2017-07-02T11:02:36Z</time>
      </trkpt>
      <trkpt lat="42.39648" lon="0.12734">
        <ele>742.4</ele>
        <time>2017-07-02T11:02:38Z</time>
      </trkpt>
      <trkpt lat="42.39644" lon="0.12734">
        <ele>743</ele>
        <time>2017-07-02T11:02:41Z</time>
      </trkpt>
      <trkpt lat="42.39641" lon="0.1273">
        <ele>743.5</ele>
        <time>2017-07-02T11:02:44Z</time>
      </trkpt>
      <trkpt lat="42.3964" lon="0.12726">
        <ele>743.9</ele>
        <time>2017-07-02T11:02:46Z</time>
      </trkpt>
      <trkpt lat="42.39638" lon="0.12721">
        <ele>744.1</ele>
        <time>2017-07-02T11:02:48Z</time>
      </trkpt>
      <trkpt lat="42.39636" lon="0.12716">
        <ele>744.2</ele>
        <time>2017-07-02T11:02:50Z</time>
      </trkpt>
      <trkpt lat="42.39633" lon="0.12713">
        <ele>744.2</ele>
        <time>2017-07-02T11:02:52Z</time>
      </trkpt>
      <trkpt lat="42.39631" lon="0.12712">
        <ele>744.3</ele>
        <time>2017-07-02T11:02:54Z</time>
      </trkpt>
      <trkpt lat="42.39626" lon="0.12711">
        <ele>744.3</ele>
        <time>2017-07-02T11:02:56Z</time>
      </trkpt>
      <trkpt lat="42.39622" lon="0.12711">
        <ele>744.3</ele>
        <time>2017-07-02T11:02:57Z</time>
      </trkpt>
      <trkpt lat="42.39618" lon="0.12711">
        <ele>744.2</ele>
        <time>2017-07-02T11:02:58Z</time>
      </trkpt>
      <trkpt lat="42.39614" lon="0.12712">
        <ele>744.2</ele>
        <time>2017-07-02T11:02:59Z</time>
      </trkpt>
      <trkpt lat="42.39611" lon="0.12714">
        <ele>744.1</ele>
        <time>2017-07-02T11:03:00Z</time>
      </trkpt>
      <trkpt lat="42.39608" lon="0.12716">
        <ele>744.1</ele>
        <time>2017-07-02T11:03:01Z</time>
      </trkpt>
      <trkpt lat="42.39605" lon="0.12718">
        <ele>744.1</ele>
        <time>2017-07-02T11:03:03Z</time>
      </trkpt>
      <trkpt lat="42.39602" lon="0.12717">
        <ele>744.1</ele>
        <time>2017-07-02T11:03:05Z</time>
      </trkpt>
      <trkpt lat="42.39599" lon="0.12714">
        <ele>744.1</ele>
        <time>2017-07-02T11:03:07Z</time>
      </trkpt>
      <trkpt lat="42.39595" lon="0.12711">
        <ele>744.2</ele>
        <time>2017-07-02T11:03:09Z</time>
      </trkpt>
      <trkpt lat="42.39592" lon="0.12708">
        <ele>744.3</ele>
        <time>2017-07-02T11:03:11Z</time>
      </trkpt>
      <trkpt lat="42.3959" lon="0.12706">
        <ele>744.3</ele>
        <time>2017-07-02T11:03:13Z</time>
      </trkpt>
      <trkpt lat="42.39587" lon="0.12704">
        <ele>744.4</ele>
        <time>2017-07-02T11:03:15Z</time>
      </trkpt>
      <trkpt lat="42.39585" lon="0.12702">
        <ele>744.5</ele>
        <time>2017-07-02T11:03:17Z</time>
      </trkpt>
      <trkpt lat="42.39582" lon="0.127">
        <ele>744.7</ele>
        <time>2017-07-02T11:03:19Z</time>
      </trkpt>
      <trkpt lat="42.39579" lon="0.127">
        <ele>745</ele>
        <time>2017-07-02T11:03:21Z</time>
      </trkpt>
      <trkpt lat="42.39576" lon="0.127">
        <ele>745.2</ele>
        <time>2017-07-02T11:03:23Z</time>
      </trkpt>
      <trkpt lat="42.39573" lon="0.12699">
        <ele>745.5</ele>
        <time>2017-07-02T11:03:26Z</time>
      </trkpt>
      <trkpt lat="42.39569" lon="0.12697">
        <ele>745.7</ele>
        <time>2017-07-02T11:03:29Z</time>
      </trkpt>
      <trkpt lat="42.39566" lon="0.12694">
        <ele>746.1</ele>
        <time>2017-07-02T11:03:32Z</time>
      </trkpt>
      <trkpt lat="42.39564" lon="0.12691">
        <ele>746.5</ele>
        <time>2017-07-02T11:03:34Z</time>
      </trkpt>
      <trkpt lat="42.39563" lon="0.12688">
        <ele>746.7</ele>
        <time>2017-07-02T11:03:36Z</time>
      </trkpt>
      <trkpt lat="42.39562" lon="0.12683">
        <ele>747.1</ele>
        <time>2017-07-02T11:03:39Z</time>
      </trkpt>
      <trkpt lat="42.39561" lon="0.1268">
        <ele>747.5</ele>
        <time>2017-07-02T11:03:41Z</time>
      </trkpt>
      <trkpt lat="42.39558" lon="0.12676">
        <ele>747.9</ele>
        <time>2017-07-02T11:03:43Z</time>
      </trkpt>
      <trkpt lat="42.39556" lon="0.12673">
        <ele>748.2</ele>
        <time>2017-07-02T11:03:45Z</time>
      </trkpt>
      <trkpt lat="42.39553" lon="0.12671">
        <ele>748.5</ele>
        <time>2017-07-02T11:03:47Z</time>
      </trkpt>
      <trkpt lat="42.3955" lon="0.1267">
        <ele>748.9</ele>
        <time>2017-07-02T11:03:49Z</time>
      </trkpt>
      <trkpt lat="42.39547" lon="0.12669">
        <ele>749.3</ele>
        <time>2017-07-02T11:03:51Z</time>
      </trkpt>
      <trkpt lat="42.39544" lon="0.12668">
        <ele>749.6</ele>
        <time>2017-07-02T11:03:53Z</time>
      </trkpt>
      <trkpt lat="42.3954" lon="0.12669">
        <ele>749.8</ele>
        <time>2017-07-02T11:03:55Z</time>
      </trkpt>
      <trkpt lat="42.39537" lon="0.1267">
        <ele>750.2</ele>
        <time>2017-07-02T11:03:57Z</time>
      </trkpt>
      <trkpt lat="42.39534" lon="0.12672">
        <ele>750.6</ele>
        <time>2017-07-02T11:03:59Z</time>
      </trkpt>
      <trkpt lat="42.3953" lon="0.12672">
        <ele>750.9</ele>
        <time>2017-07-02T11:04:01Z</time>
      </trkpt>
      <trkpt lat="42.39527" lon="0.12671">
        <ele>751</ele>
        <time>2017-07-02T11:04:03Z</time>
      </trkpt>
      <trkpt lat="42.39524" lon="0.12669">
        <ele>751.2</ele>
        <time>2017-07-02T11:04:05Z</time>
      </trkpt>
      <trkpt lat="42.39521" lon="0.12668">
        <ele>751.3</ele>
        <time>2017-07-02T11:04:07Z</time>
      </trkpt>
      <trkpt lat="42.39517" lon="0.12667">
        <ele>751.4</ele>
        <time>2017-07-02T11:04:09Z</time>
      </trkpt>
      <trkpt lat="42.39514" lon="0.12666">
        <ele>751.6</ele>
        <time>2017-07-02T11:04:11Z</time>
      </trkpt>
      <trkpt lat="42.39511" lon="0.12665">
        <ele>751.8</ele>
        <time>2017-07-02T11:04:13Z</time>
      </trkpt>
      <trkpt lat="42.39509" lon="0.12663">
        <ele>752.1</ele>
        <time>2017-07-02T11:04:15Z</time>
      </trkpt>
      <trkpt lat="42.39506" lon="0.12662">
        <ele>752.2</ele>
        <time>2017-07-02T11:04:17Z</time>
      </trkpt>
      <trkpt lat="42.39503" lon="0.12662">
        <ele>752.3</ele>
        <time>2017-07-02T11:04:19Z</time>
      </trkpt>
      <trkpt lat="42.395" lon="0.12662">
        <ele>752.4</ele>
        <time>2017-07-02T11:04:21Z</time>
      </trkpt>
      <trkpt lat="42.39498" lon="0.12662">
        <ele>752.5</ele>
        <time>2017-07-02T11:04:23Z</time>
      </trkpt>
      <trkpt lat="42.39495" lon="0.12664">
        <ele>752.7</ele>
        <time>2017-07-02T11:04:25Z</time>
      </trkpt>
      <trkpt lat="42.39492" lon="0.12666">
        <ele>752.8</ele>
        <time>2017-07-02T11:04:27Z</time>
      </trkpt>
      <trkpt lat="42.39489" lon="0.12667">
        <ele>753.1</ele>
        <time>2017-07-02T11:04:29Z</time>
      </trkpt>
      <trkpt lat="42.39486" lon="0.12667">
        <ele>753.4</ele>
        <time>2017-07-02T11:04:31Z</time>
      </trkpt>
      <trkpt lat="42.39483" lon="0.12665">
        <ele>753.6</ele>
        <time>2017-07-02T11:04:33Z</time>
      </trkpt>
      <trkpt lat="42.39481" lon="0.12663">
        <ele>753.8</ele>
        <time>2017-07-02T11:04:35Z</time>
      </trkpt>
      <trkpt lat="42.39478" lon="0.12661">
        <ele>754</ele>
        <time>2017-07-02T11:04:37Z</time>
      </trkpt>
      <trkpt lat="42.39476" lon="0.12659">
        <ele>754.2</ele>
        <time>2017-07-02T11:04:39Z</time>
      </trkpt>
      <trkpt lat="42.39473" lon="0.12658">
        <ele>754.6</ele>
        <time>2017-07-02T11:04:42Z</time>
      </trkpt>
      <trkpt lat="42.3947" lon="0.12658">
        <ele>754.9</ele>
        <time>2017-07-02T11:04:45Z</time>
      </trkpt>
      <trkpt lat="42.39466" lon="0.1266">
        <ele>755.3</ele>
        <time>2017-07-02T11:04:48Z</time>
      </trkpt>
      <trkpt lat="42.39464" lon="0.12662">
        <ele>755.5</ele>
        <time>2017-07-02T11:04:50Z</time>
      </trkpt>
      <trkpt lat="42.3946" lon="0.12665">
        <ele>755.8</ele>
        <time>2017-07-02T11:04:53Z</time>
      </trkpt>
      <trkpt lat="42.39457" lon="0.12663">
        <ele>756.2</ele>
        <time>2017-07-02T11:04:55Z</time>
      </trkpt>
      <trkpt lat="42.39454" lon="0.12658">
        <ele>756.4</ele>
        <time>2017-07-02T11:04:57Z</time>
      </trkpt>
      <trkpt lat="42.39454" lon="0.12653">
        <ele>756.6</ele>
        <time>2017-07-02T11:04:59Z</time>
      </trkpt>
      <trkpt lat="42.39454" lon="0.1265">
        <ele>756.7</ele>
        <time>2017-07-02T11:05:01Z</time>
      </trkpt>
      <trkpt lat="42.39456" lon="0.12646">
        <ele>756.8</ele>
        <time>2017-07-02T11:05:03Z</time>
      </trkpt>
      <trkpt lat="42.3946" lon="0.12642">
        <ele>757.1</ele>
        <time>2017-07-02T11:05:49Z</time>
      </trkpt>
      <trkpt lat="42.39463" lon="0.1264">
        <ele>757.3</ele>
        <time>2017-07-02T11:05:51Z</time>
      </trkpt>
      <trkpt lat="42.39466" lon="0.12638">
        <ele>757.6</ele>
        <time>2017-07-02T11:05:53Z</time>
      </trkpt>
      <trkpt lat="42.39468" lon="0.12636">
        <ele>758</ele>
        <time>2017-07-02T11:05:55Z</time>
      </trkpt>
      <trkpt lat="42.3947" lon="0.12634">
        <ele>758.4</ele>
        <time>2017-07-02T11:05:57Z</time>
      </trkpt>
      <trkpt lat="42.39472" lon="0.12631">
        <ele>758.8</ele>
        <time>2017-07-02T11:05:59Z</time>
      </trkpt>
      <trkpt lat="42.39475" lon="0.12628">
        <ele>759.1</ele>
        <time>2017-07-02T11:06:01Z</time>
      </trkpt>
      <trkpt lat="42.39477" lon="0.12627">
        <ele>759.3</ele>
        <time>2017-07-02T11:06:03Z</time>
      </trkpt>
      <trkpt lat="42.3948" lon="0.12624">
        <ele>759.7</ele>
        <time>2017-07-02T11:06:06Z</time>
      </trkpt>
      <trkpt lat="42.39483" lon="0.12622">
        <ele>760</ele>
        <time>2017-07-02T11:06:08Z</time>
      </trkpt>
      <trkpt lat="42.39486" lon="0.12621">
        <ele>760.6</ele>
        <time>2017-07-02T11:06:11Z</time>
      </trkpt>
      <trkpt lat="42.3949" lon="0.12621">
        <ele>761.2</ele>
        <time>2017-07-02T11:06:13Z</time>
      </trkpt>
      <trkpt lat="42.39494" lon="0.1262">
        <ele>761.7</ele>
        <time>2017-07-02T11:06:15Z</time>
      </trkpt>
      <trkpt lat="42.39498" lon="0.1262">
        <ele>762.4</ele>
        <time>2017-07-02T11:06:18Z</time>
      </trkpt>
      <trkpt lat="42.39501" lon="0.12618">
        <ele>763</ele>
        <time>2017-07-02T11:06:21Z</time>
      </trkpt>
      <trkpt lat="42.39504" lon="0.12616">
        <ele>763.5</ele>
        <time>2017-07-02T11:06:23Z</time>
      </trkpt>
      <trkpt lat="42.39507" lon="0.12616">
        <ele>764</ele>
        <time>2017-07-02T11:06:25Z</time>
      </trkpt>
      <trkpt lat="42.3951" lon="0.12618">
        <ele>764.5</ele>
        <time>2017-07-02T11:06:27Z</time>
      </trkpt>
      <trkpt lat="42.39513" lon="0.12619">
        <ele>764.7</ele>
        <time>2017-07-02T11:06:29Z</time>
      </trkpt>
      <trkpt lat="42.39516" lon="0.12622">
        <ele>764.9</ele>
        <time>2017-07-02T11:06:32Z</time>
      </trkpt>
      <trkpt lat="42.39518" lon="0.12624">
        <ele>765</ele>
        <time>2017-07-02T11:06:34Z</time>
      </trkpt>
      <trkpt lat="42.39523" lon="0.12623">
        <ele>765.2</ele>
        <time>2017-07-02T11:06:37Z</time>
      </trkpt>
      <trkpt lat="42.39525" lon="0.1262">
        <ele>765.4</ele>
        <time>2017-07-02T11:06:39Z</time>
      </trkpt>
      <trkpt lat="42.39528" lon="0.12617">
        <ele>765.6</ele>
        <time>2017-07-02T11:06:41Z</time>
      </trkpt>
      <trkpt lat="42.3953" lon="0.12614">
        <ele>765.8</ele>
        <time>2017-07-02T11:06:43Z</time>
      </trkpt>
      <trkpt lat="42.39532" lon="0.12612">
        <ele>766.1</ele>
        <time>2017-07-02T11:06:46Z</time>
      </trkpt>
      <trkpt lat="42.39536" lon="0.12611">
        <ele>766.6</ele>
        <time>2017-07-02T11:06:48Z</time>
      </trkpt>
      <trkpt lat="42.39539" lon="0.12611">
        <ele>766.9</ele>
        <time>2017-07-02T11:06:50Z</time>
      </trkpt>
      <trkpt lat="42.39542" lon="0.12611">
        <ele>767.1</ele>
        <time>2017-07-02T11:06:52Z</time>
      </trkpt>
      <trkpt lat="42.39546" lon="0.12607">
        <ele>767.5</ele>
        <time>2017-07-02T11:06:55Z</time>
      </trkpt>
      <trkpt lat="42.39549" lon="0.12606">
        <ele>767.7</ele>
        <time>2017-07-02T11:06:57Z</time>
      </trkpt>
      <trkpt lat="42.39552" lon="0.12605">
        <ele>768.2</ele>
        <time>2017-07-02T11:06:59Z</time>
      </trkpt>
      <trkpt lat="42.39556" lon="0.12604">
        <ele>768.8</ele>
        <time>2017-07-02T11:07:01Z</time>
      </trkpt>
      <trkpt lat="42.39559" lon="0.12604">
        <ele>769.2</ele>
        <time>2017-07-02T11:07:03Z</time>
      </trkpt>
      <trkpt lat="42.39562" lon="0.12605">
        <ele>769.5</ele>
        <time>2017-07-02T11:07:05Z</time>
      </trkpt>
      <trkpt lat="42.39565" lon="0.12603">
        <ele>769.8</ele>
        <time>2017-07-02T11:07:07Z</time>
      </trkpt>
      <trkpt lat="42.39567" lon="0.12602">
        <ele>770.3</ele>
        <time>2017-07-02T11:07:09Z</time>
      </trkpt>
      <trkpt lat="42.3957" lon="0.12601">
        <ele>770.7</ele>
        <time>2017-07-02T11:07:11Z</time>
      </trkpt>
      <trkpt lat="42.39573" lon="0.12599">
        <ele>771.1</ele>
        <time>2017-07-02T11:07:14Z</time>
      </trkpt>
      <trkpt lat="42.39577" lon="0.12598">
        <ele>771.4</ele>
        <time>2017-07-02T11:07:16Z</time>
      </trkpt>
      <trkpt lat="42.39581" lon="0.12599">
        <ele>771.8</ele>
        <time>2017-07-02T11:07:18Z</time>
      </trkpt>
      <trkpt lat="42.39584" lon="0.126">
        <ele>772.2</ele>
        <time>2017-07-02T11:07:20Z</time>
      </trkpt>
      <trkpt lat="42.39587" lon="0.12598">
        <ele>772.9</ele>
        <time>2017-07-02T11:07:23Z</time>
      </trkpt>
      <trkpt lat="42.39589" lon="0.12595">
        <ele>773.5</ele>
        <time>2017-07-02T11:07:25Z</time>
      </trkpt>
      <trkpt lat="42.39592" lon="0.12593">
        <ele>774.2</ele>
        <time>2017-07-02T11:07:27Z</time>
      </trkpt>
      <trkpt lat="42.39595" lon="0.12593">
        <ele>774.9</ele>
        <time>2017-07-02T11:07:29Z</time>
      </trkpt>
      <trkpt lat="42.39599" lon="0.12594">
        <ele>775.3</ele>
        <time>2017-07-02T11:07:31Z</time>
      </trkpt>
      <trkpt lat="42.39601" lon="0.12598">
        <ele>775.7</ele>
        <time>2017-07-02T11:07:33Z</time>
      </trkpt>
      <trkpt lat="42.39603" lon="0.12602">
        <ele>776.2</ele>
        <time>2017-07-02T11:07:35Z</time>
      </trkpt>
      <trkpt lat="42.39604" lon="0.12606">
        <ele>776.8</ele>
        <time>2017-07-02T11:07:37Z</time>
      </trkpt>
      <trkpt lat="42.39607" lon="0.12609">
        <ele>777.3</ele>
        <time>2017-07-02T11:07:39Z</time>
      </trkpt>
      <trkpt lat="42.39611" lon="0.12608">
        <ele>777.7</ele>
        <time>2017-07-02T11:07:42Z</time>
      </trkpt>
      <trkpt lat="42.39614" lon="0.12607">
        <ele>777.9</ele>
        <time>2017-07-02T11:07:44Z</time>
      </trkpt>
      <trkpt lat="42.39617" lon="0.12607">
        <ele>778.2</ele>
        <time>2017-07-02T11:07:46Z</time>
      </trkpt>
      <trkpt lat="42.3962" lon="0.12606">
        <ele>778.6</ele>
        <time>2017-07-02T11:07:48Z</time>
      </trkpt>
      <trkpt lat="42.39624" lon="0.12607">
        <ele>779.2</ele>
        <time>2017-07-02T11:07:50Z</time>
      </trkpt>
      <trkpt lat="42.39627" lon="0.12608">
        <ele>779.6</ele>
        <time>2017-07-02T11:07:52Z</time>
      </trkpt>
      <trkpt lat="42.3963" lon="0.12606">
        <ele>779.9</ele>
        <time>2017-07-02T11:07:54Z</time>
      </trkpt>
      <trkpt lat="42.39633" lon="0.12602">
        <ele>780.2</ele>
        <time>2017-07-02T11:07:57Z</time>
      </trkpt>
      <trkpt lat="42.39636" lon="0.12601">
        <ele>780.4</ele>
        <time>2017-07-02T11:07:59Z</time>
      </trkpt>
      <trkpt lat="42.3964" lon="0.12601">
        <ele>780.9</ele>
        <time>2017-07-02T11:08:01Z</time>
      </trkpt>
      <trkpt lat="42.39643" lon="0.126">
        <ele>781.5</ele>
        <time>2017-07-02T11:08:03Z</time>
      </trkpt>
      <trkpt lat="42.39645" lon="0.12597">
        <ele>781.9</ele>
        <time>2017-07-02T11:08:07Z</time>
      </trkpt>
      <trkpt lat="42.39648" lon="0.12596">
        <ele>782.2</ele>
        <time>2017-07-02T11:08:10Z</time>
      </trkpt>
      <trkpt lat="42.39652" lon="0.12596">
        <ele>782.5</ele>
        <time>2017-07-02T11:08:13Z</time>
      </trkpt>
      <trkpt lat="42.39655" lon="0.12595">
        <ele>783</ele>
        <time>2017-07-02T11:08:15Z</time>
      </trkpt>
      <trkpt lat="42.39658" lon="0.12595">
        <ele>783.5</ele>
        <time>2017-07-02T11:08:17Z</time>
      </trkpt>
      <trkpt lat="42.39661" lon="0.12592">
        <ele>783.7</ele>
        <time>2017-07-02T11:08:20Z</time>
      </trkpt>
      <trkpt lat="42.39665" lon="0.12592">
        <ele>784</ele>
        <time>2017-07-02T11:08:22Z</time>
      </trkpt>
      <trkpt lat="42.39668" lon="0.12592">
        <ele>784.3</ele>
        <time>2017-07-02T11:08:24Z</time>
      </trkpt>
      <trkpt lat="42.39671" lon="0.12592">
        <ele>784.6</ele>
        <time>2017-07-02T11:08:26Z</time>
      </trkpt>
      <trkpt lat="42.39674" lon="0.12592">
        <ele>785.1</ele>
        <time>2017-07-02T11:08:28Z</time>
      </trkpt>
      <trkpt lat="42.39678" lon="0.12591">
        <ele>785.6</ele>
        <time>2017-07-02T11:08:31Z</time>
      </trkpt>
      <trkpt lat="42.39681" lon="0.12587">
        <ele>785.9</ele>
        <time>2017-07-02T11:08:34Z</time>
      </trkpt>
      <trkpt lat="42.39684" lon="0.12585">
        <ele>786.3</ele>
        <time>2017-07-02T11:08:37Z</time>
      </trkpt>
      <trkpt lat="42.39687" lon="0.12585">
        <ele>786.8</ele>
        <time>2017-07-02T11:08:39Z</time>
      </trkpt>
      <trkpt lat="42.39691" lon="0.12587">
        <ele>787.3</ele>
        <time>2017-07-02T11:08:42Z</time>
      </trkpt>
      <trkpt lat="42.39695" lon="0.12586">
        <ele>787.7</ele>
        <time>2017-07-02T11:08:44Z</time>
      </trkpt>
      <trkpt lat="42.39698" lon="0.12585">
        <ele>787.9</ele>
        <time>2017-07-02T11:08:46Z</time>
      </trkpt>
      <trkpt lat="42.39701" lon="0.12585">
        <ele>788.1</ele>
        <time>2017-07-02T11:08:48Z</time>
      </trkpt>
      <trkpt lat="42.39705" lon="0.12584">
        <ele>788.3</ele>
        <time>2017-07-02T11:08:50Z</time>
      </trkpt>
      <trkpt lat="42.39707" lon="0.12582">
        <ele>788.5</ele>
        <time>2017-07-02T11:08:52Z</time>
      </trkpt>
      <trkpt lat="42.39709" lon="0.12579">
        <ele>788.8</ele>
        <time>2017-07-02T11:08:54Z</time>
      </trkpt>
      <trkpt lat="42.39713" lon="0.12577">
        <ele>789.4</ele>
        <time>2017-07-02T11:08:57Z</time>
      </trkpt>
      <trkpt lat="42.39716" lon="0.12576">
        <ele>789.9</ele>
        <time>2017-07-02T11:09:00Z</time>
      </trkpt>
      <trkpt lat="42.39718" lon="0.12573">
        <ele>790.3</ele>
        <time>2017-07-02T11:09:03Z</time>
      </trkpt>
      <trkpt lat="42.39722" lon="0.12572">
        <ele>790.7</ele>
        <time>2017-07-02T11:09:06Z</time>
      </trkpt>
      <trkpt lat="42.39727" lon="0.12571">
        <ele>791.4</ele>
        <time>2017-07-02T11:09:09Z</time>
      </trkpt>
      <trkpt lat="42.3973" lon="0.1257">
        <ele>791.9</ele>
        <time>2017-07-02T11:09:11Z</time>
      </trkpt>
      <trkpt lat="42.39733" lon="0.12571">
        <ele>792.1</ele>
        <time>2017-07-02T11:09:13Z</time>
      </trkpt>
      <trkpt lat="42.39736" lon="0.12572">
        <ele>792.3</ele>
        <time>2017-07-02T11:09:15Z</time>
      </trkpt>
      <trkpt lat="42.39739" lon="0.12572">
        <ele>792.6</ele>
        <time>2017-07-02T11:09:17Z</time>
      </trkpt>
      <trkpt lat="42.39742" lon="0.1257">
        <ele>793</ele>
        <time>2017-07-02T11:09:20Z</time>
      </trkpt>
      <trkpt lat="42.39746" lon="0.12568">
        <ele>793.5</ele>
        <time>2017-07-02T11:09:22Z</time>
      </trkpt>
      <trkpt lat="42.39749" lon="0.12567">
        <ele>793.9</ele>
        <time>2017-07-02T11:09:24Z</time>
      </trkpt>
      <trkpt lat="42.39753" lon="0.12567">
        <ele>794.4</ele>
        <time>2017-07-02T11:09:27Z</time>
      </trkpt>
      <trkpt lat="42.39756" lon="0.12568">
        <ele>794.8</ele>
        <time>2017-07-02T11:09:29Z</time>
      </trkpt>
      <trkpt lat="42.3976" lon="0.12567">
        <ele>795.4</ele>
        <time>2017-07-02T11:09:32Z</time>
      </trkpt>
      <trkpt lat="42.39765" lon="0.12566">
        <ele>795.8</ele>
        <time>2017-07-02T11:09:34Z</time>
      </trkpt>
      <trkpt lat="42.39769" lon="0.12565">
        <ele>796.1</ele>
        <time>2017-07-02T11:09:36Z</time>
      </trkpt>
      <trkpt lat="42.39773" lon="0.12565">
        <ele>796.2</ele>
        <time>2017-07-02T11:09:38Z</time>
      </trkpt>
      <trkpt lat="42.39776" lon="0.12564">
        <ele>796.3</ele>
        <time>2017-07-02T11:09:40Z</time>
      </trkpt>
      <trkpt lat="42.3978" lon="0.12562">
        <ele>796.5</ele>
        <time>2017-07-02T11:09:42Z</time>
      </trkpt>
      <trkpt lat="42.39782" lon="0.1256">
        <ele>796.7</ele>
        <time>2017-07-02T11:09:43Z</time>
      </trkpt>
      <trkpt lat="42.39785" lon="0.12559">
        <ele>797</ele>
        <time>2017-07-02T11:09:44Z</time>
      </trkpt>
      <trkpt lat="42.39789" lon="0.12558">
        <ele>797.5</ele>
        <time>2017-07-02T11:09:46Z</time>
      </trkpt>
      <trkpt lat="42.39793" lon="0.12557">
        <ele>797.9</ele>
        <time>2017-07-02T11:09:48Z</time>
      </trkpt>
      <trkpt lat="42.39796" lon="0.12555">
        <ele>798.1</ele>
        <time>2017-07-02T11:09:50Z</time>
      </trkpt>
      <trkpt lat="42.398" lon="0.12554">
        <ele>798.2</ele>
        <time>2017-07-02T11:09:52Z</time>
      </trkpt>
      <trkpt lat="42.39804" lon="0.12553">
        <ele>798.4</ele>
        <time>2017-07-02T11:09:54Z</time>
      </trkpt>
      <trkpt lat="42.39807" lon="0.12552">
        <ele>798.6</ele>
        <time>2017-07-02T11:09:56Z</time>
      </trkpt>
      <trkpt lat="42.39811" lon="0.12551">
        <ele>798.8</ele>
        <time>2017-07-02T11:09:58Z</time>
      </trkpt>
      <trkpt lat="42.39815" lon="0.12549">
        <ele>799.4</ele>
        <time>2017-07-02T11:10:00Z</time>
      </trkpt>
      <trkpt lat="42.39818" lon="0.12547">
        <ele>799.8</ele>
        <time>2017-07-02T11:10:02Z</time>
      </trkpt>
      <trkpt lat="42.39821" lon="0.12545">
        <ele>800.1</ele>
        <time>2017-07-02T11:10:04Z</time>
      </trkpt>
      <trkpt lat="42.39825" lon="0.12545">
        <ele>800.4</ele>
        <time>2017-07-02T11:10:06Z</time>
      </trkpt>
      <trkpt lat="42.39828" lon="0.12545">
        <ele>800.7</ele>
        <time>2017-07-02T11:10:08Z</time>
      </trkpt>
      <trkpt lat="42.39831" lon="0.12544">
        <ele>801.2</ele>
        <time>2017-07-02T11:10:10Z</time>
      </trkpt>
      <trkpt lat="42.39835" lon="0.12542">
        <ele>801.7</ele>
        <time>2017-07-02T11:10:12Z</time>
      </trkpt>
      <trkpt lat="42.39839" lon="0.12541">
        <ele>802.1</ele>
        <time>2017-07-02T11:10:14Z</time>
      </trkpt>
      <trkpt lat="42.39842" lon="0.1254">
        <ele>802.4</ele>
        <time>2017-07-02T11:10:16Z</time>
      </trkpt>
      <trkpt lat="42.39845" lon="0.12539">
        <ele>802.6</ele>
        <time>2017-07-02T11:10:18Z</time>
      </trkpt>
      <trkpt lat="42.39849" lon="0.12537">
        <ele>802.9</ele>
        <time>2017-07-02T11:10:20Z</time>
      </trkpt>
      <trkpt lat="42.39852" lon="0.12536">
        <ele>803.2</ele>
        <time>2017-07-02T11:10:22Z</time>
      </trkpt>
      <trkpt lat="42.39856" lon="0.12533">
        <ele>803.8</ele>
        <time>2017-07-02T11:10:24Z</time>
      </trkpt>
      <trkpt lat="42.39859" lon="0.12531">
        <ele>804.3</ele>
        <time>2017-07-02T11:10:26Z</time>
      </trkpt>
      <trkpt lat="42.39862" lon="0.1253">
        <ele>804.8</ele>
        <time>2017-07-02T11:10:28Z</time>
      </trkpt>
      <trkpt lat="42.39865" lon="0.12528">
        <ele>805.4</ele>
        <time>2017-07-02T11:10:30Z</time>
      </trkpt>
      <trkpt lat="42.39869" lon="0.12528">
        <ele>806.1</ele>
        <time>2017-07-02T11:10:32Z</time>
      </trkpt>
      <trkpt lat="42.39874" lon="0.1253">
        <ele>806.6</ele>
        <time>2017-07-02T11:10:34Z</time>
      </trkpt>
      <trkpt lat="42.39878" lon="0.12531">
        <ele>807.3</ele>
        <time>2017-07-02T11:10:36Z</time>
      </trkpt>
      <trkpt lat="42.39882" lon="0.1253">
        <ele>807.9</ele>
        <time>2017-07-02T11:10:38Z</time>
      </trkpt>
      <trkpt lat="42.39886" lon="0.12527">
        <ele>808.3</ele>
        <time>2017-07-02T11:10:40Z</time>
      </trkpt>
      <trkpt lat="42.39889" lon="0.12526">
        <ele>808.5</ele>
        <time>2017-07-02T11:10:42Z</time>
      </trkpt>
      <trkpt lat="42.39891" lon="0.12524">
        <ele>808.8</ele>
        <time>2017-07-02T11:10:44Z</time>
      </trkpt>
      <trkpt lat="42.39895" lon="0.12524">
        <ele>809.3</ele>
        <time>2017-07-02T11:10:46Z</time>
      </trkpt>
      <trkpt lat="42.39898" lon="0.12525">
        <ele>809.9</ele>
        <time>2017-07-02T11:10:49Z</time>
      </trkpt>
      <trkpt lat="42.39901" lon="0.12523">
        <ele>810.2</ele>
        <time>2017-07-02T11:10:52Z</time>
      </trkpt>
      <trkpt lat="42.39904" lon="0.12522">
        <ele>810.4</ele>
        <time>2017-07-02T11:10:54Z</time>
      </trkpt>
      <trkpt lat="42.39908" lon="0.12523">
        <ele>810.6</ele>
        <time>2017-07-02T11:10:56Z</time>
      </trkpt>
      <trkpt lat="42.39911" lon="0.12521">
        <ele>810.8</ele>
        <time>2017-07-02T11:10:58Z</time>
      </trkpt>
      <trkpt lat="42.39914" lon="0.12518">
        <ele>810.9</ele>
        <time>2017-07-02T11:11:00Z</time>
      </trkpt>
      <trkpt lat="42.39917" lon="0.12515">
        <ele>811</ele>
        <time>2017-07-02T11:11:02Z</time>
      </trkpt>
      <trkpt lat="42.3992" lon="0.12514">
        <ele>811.3</ele>
        <time>2017-07-02T11:11:04Z</time>
      </trkpt>
      <trkpt lat="42.39923" lon="0.12513">
        <ele>811.5</ele>
        <time>2017-07-02T11:11:06Z</time>
      </trkpt>
      <trkpt lat="42.39927" lon="0.1251">
        <ele>811.8</ele>
        <time>2017-07-02T11:11:09Z</time>
      </trkpt>
      <trkpt lat="42.3993" lon="0.12509">
        <ele>811.9</ele>
        <time>2017-07-02T11:11:11Z</time>
      </trkpt>
      <trkpt lat="42.39933" lon="0.12508">
        <ele>812</ele>
        <time>2017-07-02T11:11:13Z</time>
      </trkpt>
      <trkpt lat="42.39936" lon="0.12506">
        <ele>812</ele>
        <time>2017-07-02T11:11:15Z</time>
      </trkpt>
      <trkpt lat="42.39938" lon="0.12503">
        <ele>812</ele>
        <time>2017-07-02T11:11:17Z</time>
      </trkpt>
      <trkpt lat="42.39941" lon="0.125">
        <ele>812</ele>
        <time>2017-07-02T11:11:20Z</time>
      </trkpt>
      <trkpt lat="42.39944" lon="0.12495">
        <ele>812</ele>
        <time>2017-07-02T11:11:22Z</time>
      </trkpt>
      <trkpt lat="42.39949" lon="0.12491">
        <ele>811.9</ele>
        <time>2017-07-02T11:11:24Z</time>
      </trkpt>
      <trkpt lat="42.39952" lon="0.12487">
        <ele>811.7</ele>
        <time>2017-07-02T11:11:26Z</time>
      </trkpt>
      <trkpt lat="42.39954" lon="0.12483">
        <ele>811.6</ele>
        <time>2017-07-02T11:11:28Z</time>
      </trkpt>
      <trkpt lat="42.39957" lon="0.12478">
        <ele>811.2</ele>
        <time>2017-07-02T11:11:30Z</time>
      </trkpt>
      <trkpt lat="42.39959" lon="0.12476">
        <ele>810.9</ele>
        <time>2017-07-02T11:11:32Z</time>
      </trkpt>
      <trkpt lat="42.39962" lon="0.12472">
        <ele>810.5</ele>
        <time>2017-07-02T11:11:35Z</time>
      </trkpt>
      <trkpt lat="42.39964" lon="0.12469">
        <ele>810.3</ele>
        <time>2017-07-02T11:11:37Z</time>
      </trkpt>
      <trkpt lat="42.39968" lon="0.12465">
        <ele>810.1</ele>
        <time>2017-07-02T11:11:39Z</time>
      </trkpt>
      <trkpt lat="42.39971" lon="0.12463">
        <ele>809.8</ele>
        <time>2017-07-02T11:11:41Z</time>
      </trkpt>
      <trkpt lat="42.39975" lon="0.12459">
        <ele>809.4</ele>
        <time>2017-07-02T11:11:43Z</time>
      </trkpt>
      <trkpt lat="42.39977" lon="0.12457">
        <ele>809.1</ele>
        <time>2017-07-02T11:11:44Z</time>
      </trkpt>
      <trkpt lat="42.3998" lon="0.12451">
        <ele>808.7</ele>
        <time>2017-07-02T11:11:46Z</time>
      </trkpt>
      <trkpt lat="42.39982" lon="0.12449">
        <ele>808.5</ele>
        <time>2017-07-02T11:11:47Z</time>
      </trkpt>
      <trkpt lat="42.39985" lon="0.12446">
        <ele>808.4</ele>
        <time>2017-07-02T11:11:48Z</time>
      </trkpt>
      <trkpt lat="42.39987" lon="0.12444">
        <ele>808.4</ele>
        <time>2017-07-02T11:11:49Z</time>
      </trkpt>
      <trkpt lat="42.3999" lon="0.12442">
        <ele>808.3</ele>
        <time>2017-07-02T11:11:50Z</time>
      </trkpt>
      <trkpt lat="42.39992" lon="0.1244">
        <ele>808.2</ele>
        <time>2017-07-02T11:11:51Z</time>
      </trkpt>
      <trkpt lat="42.39997" lon="0.12438">
        <ele>808.1</ele>
        <time>2017-07-02T11:11:53Z</time>
      </trkpt>
      <trkpt lat="42.39999" lon="0.12437">
        <ele>808</ele>
        <time>2017-07-02T11:11:55Z</time>
      </trkpt>
      <trkpt lat="42.40002" lon="0.12434">
        <ele>808</ele>
        <time>2017-07-02T11:11:57Z</time>
      </trkpt>
      <trkpt lat="42.40006" lon="0.1243">
        <ele>807.9</ele>
        <time>2017-07-02T11:11:59Z</time>
      </trkpt>
      <trkpt lat="42.40008" lon="0.12428">
        <ele>807.8</ele>
        <time>2017-07-02T11:12:00Z</time>
      </trkpt>
      <trkpt lat="42.40012" lon="0.12425">
        <ele>807.7</ele>
        <time>2017-07-02T11:12:02Z</time>
      </trkpt>
      <trkpt lat="42.40016" lon="0.1242">
        <ele>807.5</ele>
        <time>2017-07-02T11:12:04Z</time>
      </trkpt>
      <trkpt lat="42.40019" lon="0.12417">
        <ele>807.3</ele>
        <time>2017-07-02T11:12:05Z</time>
      </trkpt>
      <trkpt lat="42.40023" lon="0.12414">
        <ele>806.9</ele>
        <time>2017-07-02T11:12:07Z</time>
      </trkpt>
      <trkpt lat="42.40026" lon="0.12412">
        <ele>806.5</ele>
        <time>2017-07-02T11:12:09Z</time>
      </trkpt>
      <trkpt lat="42.4003" lon="0.12408">
        <ele>806.4</ele>
        <time>2017-07-02T11:12:11Z</time>
      </trkpt>
      <trkpt lat="42.40033" lon="0.12402">
        <ele>806.2</ele>
        <time>2017-07-02T11:12:13Z</time>
      </trkpt>
      <trkpt lat="42.40036" lon="0.12399">
        <ele>806.2</ele>
        <time>2017-07-02T11:12:14Z</time>
      </trkpt>
      <trkpt lat="42.40038" lon="0.12396">
        <ele>806.1</ele>
        <time>2017-07-02T11:12:15Z</time>
      </trkpt>
      <trkpt lat="42.40041" lon="0.12394">
        <ele>806.1</ele>
        <time>2017-07-02T11:12:16Z</time>
      </trkpt>
      <trkpt lat="42.40044" lon="0.12392">
        <ele>806.1</ele>
        <time>2017-07-02T11:12:17Z</time>
      </trkpt>
      <trkpt lat="42.40047" lon="0.12391">
        <ele>806</ele>
        <time>2017-07-02T11:12:19Z</time>
      </trkpt>
      <trkpt lat="42.4005" lon="0.1239">
        <ele>806</ele>
        <time>2017-07-02T11:12:21Z</time>
      </trkpt>
      <trkpt lat="42.40053" lon="0.12387">
        <ele>806</ele>
        <time>2017-07-02T11:12:23Z</time>
      </trkpt>
      <trkpt lat="42.40057" lon="0.12385">
        <ele>806</ele>
        <time>2017-07-02T11:12:25Z</time>
      </trkpt>
      <trkpt lat="42.40061" lon="0.12384">
        <ele>806</ele>
        <time>2017-07-02T11:12:27Z</time>
      </trkpt>
      <trkpt lat="42.40064" lon="0.12383">
        <ele>806</ele>
        <time>2017-07-02T11:12:29Z</time>
      </trkpt>
      <trkpt lat="42.40067" lon="0.1238">
        <ele>806.1</ele>
        <time>2017-07-02T11:12:31Z</time>
      </trkpt>
      <trkpt lat="42.40071" lon="0.12375">
        <ele>806.1</ele>
        <time>2017-07-02T11:12:33Z</time>
      </trkpt>
      <trkpt lat="42.40074" lon="0.12373">
        <ele>806.1</ele>
        <time>2017-07-02T11:12:34Z</time>
      </trkpt>
      <trkpt lat="42.40076" lon="0.1237">
        <ele>806.2</ele>
        <time>2017-07-02T11:12:35Z</time>
      </trkpt>
      <trkpt lat="42.40078" lon="0.12368">
        <ele>806.2</ele>
        <time>2017-07-02T11:12:36Z</time>
      </trkpt>
      <trkpt lat="42.40083" lon="0.12365">
        <ele>806.3</ele>
        <time>2017-07-02T11:12:38Z</time>
      </trkpt>
      <trkpt lat="42.40087" lon="0.12364">
        <ele>806.5</ele>
        <time>2017-07-02T11:12:40Z</time>
      </trkpt>
      <trkpt lat="42.40091" lon="0.12363">
        <ele>806.6</ele>
        <time>2017-07-02T11:12:42Z</time>
      </trkpt>
      <trkpt lat="42.40095" lon="0.12362">
        <ele>806.8</ele>
        <time>2017-07-02T11:12:44Z</time>
      </trkpt>
      <trkpt lat="42.40099" lon="0.12361">
        <ele>807.2</ele>
        <time>2017-07-02T11:12:46Z</time>
      </trkpt>
      <trkpt lat="42.40102" lon="0.12359">
        <ele>807.6</ele>
        <time>2017-07-02T11:12:48Z</time>
      </trkpt>
      <trkpt lat="42.40105" lon="0.12357">
        <ele>808</ele>
        <time>2017-07-02T11:12:50Z</time>
      </trkpt>
      <trkpt lat="42.40108" lon="0.12354">
        <ele>808.3</ele>
        <time>2017-07-02T11:12:52Z</time>
      </trkpt>
      <trkpt lat="42.4011" lon="0.12351">
        <ele>808.8</ele>
        <time>2017-07-02T11:12:57Z</time>
      </trkpt>
      <trkpt lat="42.40113" lon="0.12348">
        <ele>809.5</ele>
        <time>2017-07-02T11:13:00Z</time>
      </trkpt>
      <trkpt lat="42.40117" lon="0.12348">
        <ele>809.9</ele>
        <time>2017-07-02T11:13:09Z</time>
      </trkpt>
      <trkpt lat="42.4012" lon="0.12349">
        <ele>810.5</ele>
        <time>2017-07-02T11:13:12Z</time>
      </trkpt>
      <trkpt lat="42.40122" lon="0.12351">
        <ele>811</ele>
        <time>2017-07-02T11:13:15Z</time>
      </trkpt>
      <trkpt lat="42.40123" lon="0.12355">
        <ele>811.6</ele>
        <time>2017-07-02T11:13:19Z</time>
      </trkpt>
      <trkpt lat="42.40125" lon="0.12358">
        <ele>812.4</ele>
        <time>2017-07-02T11:13:23Z</time>
      </trkpt>
      <trkpt lat="42.40129" lon="0.12359">
        <ele>813.1</ele>
        <time>2017-07-02T11:13:27Z</time>
      </trkpt>
      <trkpt lat="42.40131" lon="0.12357">
        <ele>813.9</ele>
        <time>2017-07-02T11:13:30Z</time>
      </trkpt>
      <trkpt lat="42.40134" lon="0.12354">
        <ele>814.6</ele>
        <time>2017-07-02T11:13:34Z</time>
      </trkpt>
      <trkpt lat="42.40138" lon="0.12353">
        <ele>815.1</ele>
        <time>2017-07-02T11:13:37Z</time>
      </trkpt>
      <trkpt lat="42.4014" lon="0.12352">
        <ele>815.8</ele>
        <time>2017-07-02T11:13:40Z</time>
      </trkpt>
      <trkpt lat="42.40143" lon="0.12354">
        <ele>816.6</ele>
        <time>2017-07-02T11:13:43Z</time>
      </trkpt>
      <trkpt lat="42.40146" lon="0.12356">
        <ele>817.1</ele>
        <time>2017-07-02T11:13:47Z</time>
      </trkpt>
      <trkpt lat="42.40148" lon="0.12358">
        <ele>817.8</ele>
        <time>2017-07-02T11:14:05Z</time>
      </trkpt>
      <trkpt lat="42.40151" lon="0.12357">
        <ele>818.4</ele>
        <time>2017-07-02T11:14:07Z</time>
      </trkpt>
      <trkpt lat="42.40154" lon="0.12357">
        <ele>818.8</ele>
        <time>2017-07-02T11:14:09Z</time>
      </trkpt>
      <trkpt lat="42.40157" lon="0.12356">
        <ele>819.2</ele>
        <time>2017-07-02T11:14:11Z</time>
      </trkpt>
      <trkpt lat="42.40161" lon="0.12355">
        <ele>819.7</ele>
        <time>2017-07-02T11:14:13Z</time>
      </trkpt>
      <trkpt lat="42.40163" lon="0.12355">
        <ele>820.2</ele>
        <time>2017-07-02T11:14:16Z</time>
      </trkpt>
      <trkpt lat="42.40166" lon="0.12351">
        <ele>820.8</ele>
        <time>2017-07-02T11:14:19Z</time>
      </trkpt>
      <trkpt lat="42.4017" lon="0.12349">
        <ele>821.1</ele>
        <time>2017-07-02T11:14:22Z</time>
      </trkpt>
      <trkpt lat="42.40173" lon="0.12348">
        <ele>821.5</ele>
        <time>2017-07-02T11:14:24Z</time>
      </trkpt>
      <trkpt lat="42.40177" lon="0.12348">
        <ele>822.1</ele>
        <time>2017-07-02T11:14:26Z</time>
      </trkpt>
      <trkpt lat="42.40179" lon="0.12351">
        <ele>822.7</ele>
        <time>2017-07-02T11:14:28Z</time>
      </trkpt>
      <trkpt lat="42.40183" lon="0.12351">
        <ele>823.1</ele>
        <time>2017-07-02T11:14:31Z</time>
      </trkpt>
      <trkpt lat="42.40185" lon="0.1235">
        <ele>823.4</ele>
        <time>2017-07-02T11:14:33Z</time>
      </trkpt>
      <trkpt lat="42.40188" lon="0.12348">
        <ele>824</ele>
        <time>2017-07-02T11:14:35Z</time>
      </trkpt>
      <trkpt lat="42.40191" lon="0.12347">
        <ele>824.6</ele>
        <time>2017-07-02T11:14:37Z</time>
      </trkpt>
      <trkpt lat="42.40194" lon="0.12346">
        <ele>825</ele>
        <time>2017-07-02T11:14:39Z</time>
      </trkpt>
      <trkpt lat="42.40197" lon="0.12345">
        <ele>825.3</ele>
        <time>2017-07-02T11:14:41Z</time>
      </trkpt>
      <trkpt lat="42.40201" lon="0.12346">
        <ele>825.9</ele>
        <time>2017-07-02T11:14:44Z</time>
      </trkpt>
      <trkpt lat="42.40205" lon="0.12344">
        <ele>826.5</ele>
        <time>2017-07-02T11:14:47Z</time>
      </trkpt>
      <trkpt lat="42.40208" lon="0.12343">
        <ele>826.8</ele>
        <time>2017-07-02T11:14:49Z</time>
      </trkpt>
      <trkpt lat="42.40211" lon="0.12341">
        <ele>827.1</ele>
        <time>2017-07-02T11:14:52Z</time>
      </trkpt>
      <trkpt lat="42.40214" lon="0.12339">
        <ele>827.5</ele>
        <time>2017-07-02T11:14:55Z</time>
      </trkpt>
      <trkpt lat="42.40217" lon="0.12342">
        <ele>828.1</ele>
        <time>2017-07-02T11:14:58Z</time>
      </trkpt>
      <trkpt lat="42.4022" lon="0.12343">
        <ele>828.6</ele>
        <time>2017-07-02T11:15:00Z</time>
      </trkpt>
      <trkpt lat="42.40223" lon="0.12341">
        <ele>829</ele>
        <time>2017-07-02T11:15:02Z</time>
      </trkpt>
      <trkpt lat="42.40226" lon="0.12338">
        <ele>829.4</ele>
        <time>2017-07-02T11:15:05Z</time>
      </trkpt>
      <trkpt lat="42.40229" lon="0.12339">
        <ele>829.9</ele>
        <time>2017-07-02T11:15:09Z</time>
      </trkpt>
      <trkpt lat="42.40232" lon="0.12339">
        <ele>830.5</ele>
        <time>2017-07-02T11:15:13Z</time>
      </trkpt>
      <trkpt lat="42.40236" lon="0.12338">
        <ele>830.8</ele>
        <time>2017-07-02T11:15:15Z</time>
      </trkpt>
      <trkpt lat="42.40238" lon="0.12337">
        <ele>831</ele>
        <time>2017-07-02T11:15:17Z</time>
      </trkpt>
      <trkpt lat="42.40241" lon="0.12335">
        <ele>831.2</ele>
        <time>2017-07-02T11:15:19Z</time>
      </trkpt>
      <trkpt lat="42.40244" lon="0.12334">
        <ele>831.4</ele>
        <time>2017-07-02T11:15:21Z</time>
      </trkpt>
      <trkpt lat="42.40247" lon="0.12333">
        <ele>831.6</ele>
        <time>2017-07-02T11:15:23Z</time>
      </trkpt>
      <trkpt lat="42.40251" lon="0.12333">
        <ele>832.2</ele>
        <time>2017-07-02T11:15:25Z</time>
      </trkpt>
      <trkpt lat="42.40257" lon="0.12335">
        <ele>832.8</ele>
        <time>2017-07-02T11:15:27Z</time>
      </trkpt>
      <trkpt lat="42.40261" lon="0.12336">
        <ele>833.2</ele>
        <time>2017-07-02T11:15:29Z</time>
      </trkpt>
      <trkpt lat="42.40264" lon="0.12335">
        <ele>833.6</ele>
        <time>2017-07-02T11:15:31Z</time>
      </trkpt>
      <trkpt lat="42.40267" lon="0.12333">
        <ele>834.1</ele>
        <time>2017-07-02T11:15:33Z</time>
      </trkpt>
      <trkpt lat="42.40269" lon="0.12331">
        <ele>835.1</ele>
        <time>2017-07-02T11:15:35Z</time>
      </trkpt>
      <trkpt lat="42.40272" lon="0.12329">
        <ele>835.8</ele>
        <time>2017-07-02T11:15:37Z</time>
      </trkpt>
      <trkpt lat="42.40266" lon="0.12331">
        <ele>836.7</ele>
        <time>2017-07-02T11:24:08Z</time>
      </trkpt>
      <trkpt lat="42.40273" lon="0.12322">
        <ele>837.1</ele>
        <time>2017-07-02T11:24:42Z</time>
      </trkpt>
      <trkpt lat="42.40275" lon="0.12318">
        <ele>837.1</ele>
        <time>2017-07-02T11:24:45Z</time>
      </trkpt>
      <trkpt lat="42.40278" lon="0.12315">
        <ele>837.1</ele>
        <time>2017-07-02T11:24:48Z</time>
      </trkpt>
      <trkpt lat="42.40281" lon="0.12312">
        <ele>837.1</ele>
        <time>2017-07-02T11:24:50Z</time>
      </trkpt>
      <trkpt lat="42.40284" lon="0.12309">
        <ele>837.1</ele>
        <time>2017-07-02T11:24:52Z</time>
      </trkpt>
      <trkpt lat="42.40287" lon="0.12307">
        <ele>837.1</ele>
        <time>2017-07-02T11:24:54Z</time>
      </trkpt>
      <trkpt lat="42.40291" lon="0.12306">
        <ele>837.1</ele>
        <time>2017-07-02T11:24:56Z</time>
      </trkpt>
      <trkpt lat="42.40295" lon="0.12305">
        <ele>837.1</ele>
        <time>2017-07-02T11:24:58Z</time>
      </trkpt>
      <trkpt lat="42.40298" lon="0.12303">
        <ele>837.1</ele>
        <time>2017-07-02T11:25:00Z</time>
      </trkpt>
      <trkpt lat="42.40302" lon="0.12299">
        <ele>837.1</ele>
        <time>2017-07-02T11:25:02Z</time>
      </trkpt>
      <trkpt lat="42.40303" lon="0.12296">
        <ele>837.1</ele>
        <time>2017-07-02T11:25:03Z</time>
      </trkpt>
      <trkpt lat="42.40307" lon="0.12292">
        <ele>837.1</ele>
        <time>2017-07-02T11:25:05Z</time>
      </trkpt>
      <trkpt lat="42.4031" lon="0.1229">
        <ele>837.1</ele>
        <time>2017-07-02T11:25:07Z</time>
      </trkpt>
      <trkpt lat="42.40314" lon="0.12287">
        <ele>837.1</ele>
        <time>2017-07-02T11:25:09Z</time>
      </trkpt>
      <trkpt lat="42.40319" lon="0.12283">
        <ele>837.1</ele>
        <time>2017-07-02T11:25:11Z</time>
      </trkpt>
      <trkpt lat="42.40321" lon="0.1228">
        <ele>837.1</ele>
        <time>2017-07-02T11:25:12Z</time>
      </trkpt>
      <trkpt lat="42.40323" lon="0.12277">
        <ele>837.1</ele>
        <time>2017-07-02T11:25:13Z</time>
      </trkpt>
      <trkpt lat="42.40324" lon="0.12273">
        <ele>837.1</ele>
        <time>2017-07-02T11:25:14Z</time>
      </trkpt>
      <trkpt lat="42.40327" lon="0.1227">
        <ele>837.1</ele>
        <time>2017-07-02T11:25:15Z</time>
      </trkpt>
      <trkpt lat="42.4033" lon="0.12268">
        <ele>837.1</ele>
        <time>2017-07-02T11:25:16Z</time>
      </trkpt>
      <trkpt lat="42.40333" lon="0.12266">
        <ele>837.1</ele>
        <time>2017-07-02T11:25:17Z</time>
      </trkpt>
      <trkpt lat="42.40336" lon="0.12266">
        <ele>837.1</ele>
        <time>2017-07-02T11:25:18Z</time>
      </trkpt>
      <trkpt lat="42.40339" lon="0.12266">
        <ele>837.1</ele>
        <time>2017-07-02T11:25:20Z</time>
      </trkpt>
      <trkpt lat="42.40342" lon="0.12265">
        <ele>837.1</ele>
        <time>2017-07-02T11:25:22Z</time>
      </trkpt>
      <trkpt lat="42.40345" lon="0.12262">
        <ele>837.1</ele>
        <time>2017-07-02T11:25:24Z</time>
      </trkpt>
      <trkpt lat="42.40349" lon="0.1226">
        <ele>837.1</ele>
        <time>2017-07-02T11:25:26Z</time>
      </trkpt>
      <trkpt lat="42.40353" lon="0.12257">
        <ele>837</ele>
        <time>2017-07-02T11:25:28Z</time>
      </trkpt>
      <trkpt lat="42.40357" lon="0.12254">
        <ele>837</ele>
        <time>2017-07-02T11:25:30Z</time>
      </trkpt>
      <trkpt lat="42.4036" lon="0.12252">
        <ele>837</ele>
        <time>2017-07-02T11:25:32Z</time>
      </trkpt>
      <trkpt lat="42.40364" lon="0.1225">
        <ele>837</ele>
        <time>2017-07-02T11:25:34Z</time>
      </trkpt>
      <trkpt lat="42.40367" lon="0.12248">
        <ele>836.9</ele>
        <time>2017-07-02T11:25:35Z</time>
      </trkpt>
      <trkpt lat="42.40369" lon="0.12247">
        <ele>836.9</ele>
        <time>2017-07-02T11:25:36Z</time>
      </trkpt>
      <trkpt lat="42.40373" lon="0.12243">
        <ele>836.8</ele>
        <time>2017-07-02T11:25:38Z</time>
      </trkpt>
      <trkpt lat="42.40376" lon="0.12238">
        <ele>836.7</ele>
        <time>2017-07-02T11:25:40Z</time>
      </trkpt>
      <trkpt lat="42.40378" lon="0.12235">
        <ele>836.6</ele>
        <time>2017-07-02T11:25:41Z</time>
      </trkpt>
      <trkpt lat="42.4038" lon="0.12231">
        <ele>836.3</ele>
        <time>2017-07-02T11:25:42Z</time>
      </trkpt>
      <trkpt lat="42.40382" lon="0.12228">
        <ele>835.9</ele>
        <time>2017-07-02T11:25:43Z</time>
      </trkpt>
      <trkpt lat="42.40385" lon="0.12225">
        <ele>835.5</ele>
        <time>2017-07-02T11:25:45Z</time>
      </trkpt>
      <trkpt lat="42.40389" lon="0.12221">
        <ele>835.2</ele>
        <time>2017-07-02T11:25:47Z</time>
      </trkpt>
      <trkpt lat="42.40392" lon="0.12219">
        <ele>835.1</ele>
        <time>2017-07-02T11:25:48Z</time>
      </trkpt>
      <trkpt lat="42.40395" lon="0.12218">
        <ele>835</ele>
        <time>2017-07-02T11:25:49Z</time>
      </trkpt>
      <trkpt lat="42.40399" lon="0.12216">
        <ele>834.8</ele>
        <time>2017-07-02T11:25:51Z</time>
      </trkpt>
      <trkpt lat="42.40403" lon="0.12211">
        <ele>834.7</ele>
        <time>2017-07-02T11:25:53Z</time>
      </trkpt>
      <trkpt lat="42.40405" lon="0.12209">
        <ele>834.6</ele>
        <time>2017-07-02T11:25:54Z</time>
      </trkpt>
      <trkpt lat="42.40407" lon="0.12206">
        <ele>834.5</ele>
        <time>2017-07-02T11:25:55Z</time>
      </trkpt>
      <trkpt lat="42.40409" lon="0.12202">
        <ele>834.4</ele>
        <time>2017-07-02T11:25:56Z</time>
      </trkpt>
      <trkpt lat="42.40411" lon="0.12199">
        <ele>834.4</ele>
        <time>2017-07-02T11:25:57Z</time>
      </trkpt>
      <trkpt lat="42.40414" lon="0.12196">
        <ele>834.3</ele>
        <time>2017-07-02T11:25:58Z</time>
      </trkpt>
      <trkpt lat="42.40417" lon="0.12194">
        <ele>834</ele>
        <time>2017-07-02T11:25:59Z</time>
      </trkpt>
      <trkpt lat="42.4042" lon="0.12193">
        <ele>833.8</ele>
        <time>2017-07-02T11:26:00Z</time>
      </trkpt>
      <trkpt lat="42.40425" lon="0.12192">
        <ele>833.3</ele>
        <time>2017-07-02T11:26:02Z</time>
      </trkpt>
      <trkpt lat="42.40428" lon="0.12192">
        <ele>833.1</ele>
        <time>2017-07-02T11:26:04Z</time>
      </trkpt>
      <trkpt lat="42.40431" lon="0.12186">
        <ele>832.9</ele>
        <time>2017-07-02T11:26:06Z</time>
      </trkpt>
      <trkpt lat="42.40433" lon="0.12182">
        <ele>832.8</ele>
        <time>2017-07-02T11:26:07Z</time>
      </trkpt>
      <trkpt lat="42.40434" lon="0.12178">
        <ele>832.8</ele>
        <time>2017-07-02T11:26:08Z</time>
      </trkpt>
      <trkpt lat="42.40436" lon="0.12175">
        <ele>832.7</ele>
        <time>2017-07-02T11:26:09Z</time>
      </trkpt>
      <trkpt lat="42.40439" lon="0.12171">
        <ele>832.6</ele>
        <time>2017-07-02T11:26:10Z</time>
      </trkpt>
      <trkpt lat="42.40443" lon="0.12168">
        <ele>832.4</ele>
        <time>2017-07-02T11:26:11Z</time>
      </trkpt>
      <trkpt lat="42.40445" lon="0.12164">
        <ele>832.3</ele>
        <time>2017-07-02T11:26:12Z</time>
      </trkpt>
      <trkpt lat="42.40448" lon="0.12161">
        <ele>832.2</ele>
        <time>2017-07-02T11:26:13Z</time>
      </trkpt>
      <trkpt lat="42.4045" lon="0.12158">
        <ele>832.1</ele>
        <time>2017-07-02T11:26:14Z</time>
      </trkpt>
      <trkpt lat="42.40453" lon="0.12155">
        <ele>832</ele>
        <time>2017-07-02T11:26:15Z</time>
      </trkpt>
      <trkpt lat="42.40456" lon="0.12153">
        <ele>831.8</ele>
        <time>2017-07-02T11:26:16Z</time>
      </trkpt>
      <trkpt lat="42.40461" lon="0.12151">
        <ele>831.5</ele>
        <time>2017-07-02T11:26:18Z</time>
      </trkpt>
      <trkpt lat="42.40466" lon="0.12149">
        <ele>831.1</ele>
        <time>2017-07-02T11:26:20Z</time>
      </trkpt>
      <trkpt lat="42.40468" lon="0.12148">
        <ele>830.9</ele>
        <time>2017-07-02T11:26:21Z</time>
      </trkpt>
      <trkpt lat="42.40472" lon="0.12145">
        <ele>830.6</ele>
        <time>2017-07-02T11:26:23Z</time>
      </trkpt>
      <trkpt lat="42.40475" lon="0.12143">
        <ele>830.6</ele>
        <time>2017-07-02T11:26:24Z</time>
      </trkpt>
      <trkpt lat="42.40477" lon="0.12141">
        <ele>830.5</ele>
        <time>2017-07-02T11:26:25Z</time>
      </trkpt>
      <trkpt lat="42.40481" lon="0.12137">
        <ele>830.4</ele>
        <time>2017-07-02T11:26:27Z</time>
      </trkpt>
      <trkpt lat="42.40484" lon="0.12135">
        <ele>830.4</ele>
        <time>2017-07-02T11:26:28Z</time>
      </trkpt>
      <trkpt lat="42.40487" lon="0.12132">
        <ele>830.4</ele>
        <time>2017-07-02T11:26:29Z</time>
      </trkpt>
      <trkpt lat="42.4049" lon="0.12129">
        <ele>830.4</ele>
        <time>2017-07-02T11:26:30Z</time>
      </trkpt>
      <trkpt lat="42.40492" lon="0.12127">
        <ele>830.4</ele>
        <time>2017-07-02T11:26:31Z</time>
      </trkpt>
      <trkpt lat="42.40495" lon="0.12124">
        <ele>830.3</ele>
        <time>2017-07-02T11:26:32Z</time>
      </trkpt>
      <trkpt lat="42.40497" lon="0.12122">
        <ele>830.3</ele>
        <time>2017-07-02T11:26:33Z</time>
      </trkpt>
      <trkpt lat="42.405" lon="0.12119">
        <ele>830.3</ele>
        <time>2017-07-02T11:26:34Z</time>
      </trkpt>
      <trkpt lat="42.40502" lon="0.12117">
        <ele>830.3</ele>
        <time>2017-07-02T11:26:35Z</time>
      </trkpt>
      <trkpt lat="42.40504" lon="0.12114">
        <ele>830.3</ele>
        <time>2017-07-02T11:26:36Z</time>
      </trkpt>
      <trkpt lat="42.40507" lon="0.12112">
        <ele>830.3</ele>
        <time>2017-07-02T11:26:37Z</time>
      </trkpt>
      <trkpt lat="42.40509" lon="0.12109">
        <ele>830.3</ele>
        <time>2017-07-02T11:26:38Z</time>
      </trkpt>
      <trkpt lat="42.40512" lon="0.12102">
        <ele>830.3</ele>
        <time>2017-07-02T11:26:40Z</time>
      </trkpt>
      <trkpt lat="42.40514" lon="0.12098">
        <ele>830.3</ele>
        <time>2017-07-02T11:26:41Z</time>
      </trkpt>
      <trkpt lat="42.40517" lon="0.12095">
        <ele>830.3</ele>
        <time>2017-07-02T11:26:42Z</time>
      </trkpt>
      <trkpt lat="42.40519" lon="0.12092">
        <ele>830.3</ele>
        <time>2017-07-02T11:26:43Z</time>
      </trkpt>
      <trkpt lat="42.40522" lon="0.1209">
        <ele>830.3</ele>
        <time>2017-07-02T11:26:44Z</time>
      </trkpt>
      <trkpt lat="42.40525" lon="0.12089">
        <ele>830.3</ele>
        <time>2017-07-02T11:26:45Z</time>
      </trkpt>
      <trkpt lat="42.40528" lon="0.12087">
        <ele>830.3</ele>
        <time>2017-07-02T11:26:46Z</time>
      </trkpt>
      <trkpt lat="42.40531" lon="0.12086">
        <ele>830.3</ele>
        <time>2017-07-02T11:26:47Z</time>
      </trkpt>
      <trkpt lat="42.40533" lon="0.12083">
        <ele>830.3</ele>
        <time>2017-07-02T11:26:48Z</time>
      </trkpt>
      <trkpt lat="42.40535" lon="0.1208">
        <ele>830.2</ele>
        <time>2017-07-02T11:26:49Z</time>
      </trkpt>
      <trkpt lat="42.40537" lon="0.12077">
        <ele>830.2</ele>
        <time>2017-07-02T11:26:50Z</time>
      </trkpt>
      <trkpt lat="42.40539" lon="0.12074">
        <ele>830.1</ele>
        <time>2017-07-02T11:26:51Z</time>
      </trkpt>
      <trkpt lat="42.4054" lon="0.12071">
        <ele>830.1</ele>
        <time>2017-07-02T11:26:52Z</time>
      </trkpt>
      <trkpt lat="42.40542" lon="0.12067">
        <ele>830</ele>
        <time>2017-07-02T11:26:53Z</time>
      </trkpt>
      <trkpt lat="42.40544" lon="0.12064">
        <ele>829.9</ele>
        <time>2017-07-02T11:26:54Z</time>
      </trkpt>
      <trkpt lat="42.40546" lon="0.12061">
        <ele>829.8</ele>
        <time>2017-07-02T11:26:55Z</time>
      </trkpt>
      <trkpt lat="42.40548" lon="0.12058">
        <ele>829.7</ele>
        <time>2017-07-02T11:26:56Z</time>
      </trkpt>
      <trkpt lat="42.40552" lon="0.12053">
        <ele>829.6</ele>
        <time>2017-07-02T11:26:58Z</time>
      </trkpt>
      <trkpt lat="42.40557" lon="0.12051">
        <ele>829.3</ele>
        <time>2017-07-02T11:27:00Z</time>
      </trkpt>
      <trkpt lat="42.40562" lon="0.12049">
        <ele>829</ele>
        <time>2017-07-02T11:27:02Z</time>
      </trkpt>
      <trkpt lat="42.40565" lon="0.12046">
        <ele>828.8</ele>
        <time>2017-07-02T11:27:04Z</time>
      </trkpt>
      <trkpt lat="42.40568" lon="0.12045">
        <ele>828.6</ele>
        <time>2017-07-02T11:27:07Z</time>
      </trkpt>
      <trkpt lat="42.4057" lon="0.12043">
        <ele>828.4</ele>
        <time>2017-07-02T11:27:11Z</time>
      </trkpt>
      <trkpt lat="42.40572" lon="0.12039">
        <ele>828.3</ele>
        <time>2017-07-02T11:27:16Z</time>
      </trkpt>
      <trkpt lat="42.40575" lon="0.12033">
        <ele>828.2</ele>
        <time>2017-07-02T11:27:18Z</time>
      </trkpt>
      <trkpt lat="42.40577" lon="0.12031">
        <ele>828.2</ele>
        <time>2017-07-02T11:27:19Z</time>
      </trkpt>
      <trkpt lat="42.40579" lon="0.12029">
        <ele>828.1</ele>
        <time>2017-07-02T11:27:20Z</time>
      </trkpt>
      <trkpt lat="42.40581" lon="0.12026">
        <ele>828.1</ele>
        <time>2017-07-02T11:27:21Z</time>
      </trkpt>
      <trkpt lat="42.40585" lon="0.12022">
        <ele>828.1</ele>
        <time>2017-07-02T11:27:23Z</time>
      </trkpt>
      <trkpt lat="42.40587" lon="0.1202">
        <ele>828.1</ele>
        <time>2017-07-02T11:27:24Z</time>
      </trkpt>
      <trkpt lat="42.40591" lon="0.12016">
        <ele>828.1</ele>
        <time>2017-07-02T11:27:26Z</time>
      </trkpt>
      <trkpt lat="42.40595" lon="0.12014">
        <ele>828</ele>
        <time>2017-07-02T11:27:28Z</time>
      </trkpt>
      <trkpt lat="42.406" lon="0.12013">
        <ele>828</ele>
        <time>2017-07-02T11:27:30Z</time>
      </trkpt>
      <trkpt lat="42.40603" lon="0.12013">
        <ele>828</ele>
        <time>2017-07-02T11:27:32Z</time>
      </trkpt>
      <trkpt lat="42.40606" lon="0.12013">
        <ele>828</ele>
        <time>2017-07-02T11:27:34Z</time>
      </trkpt>
      <trkpt lat="42.40609" lon="0.1201">
        <ele>828</ele>
        <time>2017-07-02T11:27:36Z</time>
      </trkpt>
      <trkpt lat="42.40613" lon="0.12008">
        <ele>828</ele>
        <time>2017-07-02T11:27:38Z</time>
      </trkpt>
      <trkpt lat="42.40616" lon="0.12007">
        <ele>828</ele>
        <time>2017-07-02T11:27:41Z</time>
      </trkpt>
      <trkpt lat="42.4062" lon="0.12005">
        <ele>828</ele>
        <time>2017-07-02T11:27:45Z</time>
      </trkpt>
      <trkpt lat="42.40623" lon="0.12003">
        <ele>828</ele>
        <time>2017-07-02T11:27:47Z</time>
      </trkpt>
      <trkpt lat="42.40626" lon="0.12">
        <ele>828</ele>
        <time>2017-07-02T11:27:49Z</time>
      </trkpt>
      <trkpt lat="42.40629" lon="0.11996">
        <ele>828</ele>
        <time>2017-07-02T11:27:51Z</time>
      </trkpt>
      <trkpt lat="42.40632" lon="0.11991">
        <ele>828</ele>
        <time>2017-07-02T11:27:53Z</time>
      </trkpt>
      <trkpt lat="42.40634" lon="0.11986">
        <ele>828</ele>
        <time>2017-07-02T11:27:55Z</time>
      </trkpt>
      <trkpt lat="42.40637" lon="0.11982">
        <ele>828</ele>
        <time>2017-07-02T11:27:57Z</time>
      </trkpt>
      <trkpt lat="42.40639" lon="0.11979">
        <ele>827.9</ele>
        <time>2017-07-02T11:27:58Z</time>
      </trkpt>
      <trkpt lat="42.40642" lon="0.11976">
        <ele>827.9</ele>
        <time>2017-07-02T11:27:59Z</time>
      </trkpt>
      <trkpt lat="42.40645" lon="0.11972">
        <ele>827.8</ele>
        <time>2017-07-02T11:28:00Z</time>
      </trkpt>
      <trkpt lat="42.40648" lon="0.11969">
        <ele>827.6</ele>
        <time>2017-07-02T11:28:01Z</time>
      </trkpt>
      <trkpt lat="42.40651" lon="0.11967">
        <ele>827.5</ele>
        <time>2017-07-02T11:28:02Z</time>
      </trkpt>
      <trkpt lat="42.40655" lon="0.11964">
        <ele>827.3</ele>
        <time>2017-07-02T11:28:04Z</time>
      </trkpt>
      <trkpt lat="42.40658" lon="0.1196">
        <ele>827</ele>
        <time>2017-07-02T11:28:06Z</time>
      </trkpt>
      <trkpt lat="42.40661" lon="0.11957">
        <ele>826.6</ele>
        <time>2017-07-02T11:28:08Z</time>
      </trkpt>
      <trkpt lat="42.40664" lon="0.11952">
        <ele>826.2</ele>
        <time>2017-07-02T11:28:10Z</time>
      </trkpt>
      <trkpt lat="42.40666" lon="0.11947">
        <ele>825.7</ele>
        <time>2017-07-02T11:28:12Z</time>
      </trkpt>
      <trkpt lat="42.40667" lon="0.11942">
        <ele>825.2</ele>
        <time>2017-07-02T11:28:14Z</time>
      </trkpt>
      <trkpt lat="42.40669" lon="0.11936">
        <ele>824.7</ele>
        <time>2017-07-02T11:28:16Z</time>
      </trkpt>
      <trkpt lat="42.4067" lon="0.11931">
        <ele>824.2</ele>
        <time>2017-07-02T11:28:18Z</time>
      </trkpt>
      <trkpt lat="42.40671" lon="0.11927">
        <ele>823.8</ele>
        <time>2017-07-02T11:28:20Z</time>
      </trkpt>
      <trkpt lat="42.40671" lon="0.11922">
        <ele>823.4</ele>
        <time>2017-07-02T11:28:22Z</time>
      </trkpt>
      <trkpt lat="42.40671" lon="0.11919">
        <ele>823.1</ele>
        <time>2017-07-02T11:28:25Z</time>
      </trkpt>
      <trkpt lat="42.40674" lon="0.11916">
        <ele>822.6</ele>
        <time>2017-07-02T11:28:28Z</time>
      </trkpt>
      <trkpt lat="42.40676" lon="0.11912">
        <ele>822.2</ele>
        <time>2017-07-02T11:28:30Z</time>
      </trkpt>
      <trkpt lat="42.40677" lon="0.11908">
        <ele>821.8</ele>
        <time>2017-07-02T11:28:32Z</time>
      </trkpt>
      <trkpt lat="42.40679" lon="0.11904">
        <ele>821.4</ele>
        <time>2017-07-02T11:28:34Z</time>
      </trkpt>
      <trkpt lat="42.40682" lon="0.11901">
        <ele>821</ele>
        <time>2017-07-02T11:28:36Z</time>
      </trkpt>
      <trkpt lat="42.40685" lon="0.119">
        <ele>820.6</ele>
        <time>2017-07-02T11:28:38Z</time>
      </trkpt>
      <trkpt lat="42.40686" lon="0.11905">
        <ele>820.1</ele>
        <time>2017-07-02T11:28:55Z</time>
      </trkpt>
      <trkpt lat="42.40689" lon="0.11896">
        <ele>819.3</ele>
        <time>2017-07-02T11:29:21Z</time>
      </trkpt>
      <trkpt lat="42.40691" lon="0.11893">
        <ele>818.3</ele>
        <time>2017-07-02T11:29:23Z</time>
      </trkpt>
      <trkpt lat="42.40693" lon="0.11888">
        <ele>817.2</ele>
        <time>2017-07-02T11:29:25Z</time>
      </trkpt>
      <trkpt lat="42.40694" lon="0.11883">
        <ele>816.9</ele>
        <time>2017-07-02T11:29:27Z</time>
      </trkpt>
      <trkpt lat="42.40694" lon="0.11879">
        <ele>816.6</ele>
        <time>2017-07-02T11:29:29Z</time>
      </trkpt>
      <trkpt lat="42.40697" lon="0.11871">
        <ele>815.9</ele>
        <time>2017-07-02T11:29:31Z</time>
      </trkpt>
      <trkpt lat="42.407" lon="0.11866">
        <ele>815.2</ele>
        <time>2017-07-02T11:29:32Z</time>
      </trkpt>
      <trkpt lat="42.40702" lon="0.1186">
        <ele>814.5</ele>
        <time>2017-07-02T11:29:33Z</time>
      </trkpt>
      <trkpt lat="42.40703" lon="0.11854">
        <ele>814.3</ele>
        <time>2017-07-02T11:29:34Z</time>
      </trkpt>
      <trkpt lat="42.40705" lon="0.11849">
        <ele>813.5</ele>
        <time>2017-07-02T11:29:35Z</time>
      </trkpt>
      <trkpt lat="42.40707" lon="0.11844">
        <ele>812.8</ele>
        <time>2017-07-02T11:29:36Z</time>
      </trkpt>
      <trkpt lat="42.40708" lon="0.1184">
        <ele>812</ele>
        <time>2017-07-02T11:29:37Z</time>
      </trkpt>
      <trkpt lat="42.40709" lon="0.11835">
        <ele>811.6</ele>
        <time>2017-07-02T11:29:38Z</time>
      </trkpt>
      <trkpt lat="42.40709" lon="0.11831">
        <ele>811.1</ele>
        <time>2017-07-02T11:29:39Z</time>
      </trkpt>
      <trkpt lat="42.40709" lon="0.11827">
        <ele>810.7</ele>
        <time>2017-07-02T11:29:40Z</time>
      </trkpt>
      <trkpt lat="42.4071" lon="0.11823">
        <ele>810.6</ele>
        <time>2017-07-02T11:29:41Z</time>
      </trkpt>
      <trkpt lat="42.40713" lon="0.11821">
        <ele>810.1</ele>
        <time>2017-07-02T11:29:42Z</time>
      </trkpt>
      <trkpt lat="42.40716" lon="0.1182">
        <ele>809.8</ele>
        <time>2017-07-02T11:29:43Z</time>
      </trkpt>
      <trkpt lat="42.40718" lon="0.11819">
        <ele>809.5</ele>
        <time>2017-07-02T11:29:44Z</time>
      </trkpt>
      <trkpt lat="42.40721" lon="0.11819">
        <ele>809.3</ele>
        <time>2017-07-02T11:29:45Z</time>
      </trkpt>
      <trkpt lat="42.40726" lon="0.11816">
        <ele>809</ele>
        <time>2017-07-02T11:29:47Z</time>
      </trkpt>
      <trkpt lat="42.40729" lon="0.11814">
        <ele>808.8</ele>
        <time>2017-07-02T11:29:48Z</time>
      </trkpt>
      <trkpt lat="42.40732" lon="0.11811">
        <ele>808.4</ele>
        <time>2017-07-02T11:29:50Z</time>
      </trkpt>
      <trkpt lat="42.40734" lon="0.11808">
        <ele>808</ele>
        <time>2017-07-02T11:29:52Z</time>
      </trkpt>
      <trkpt lat="42.40736" lon="0.11805">
        <ele>807.9</ele>
        <time>2017-07-02T11:29:53Z</time>
      </trkpt>
      <trkpt lat="42.40738" lon="0.11802">
        <ele>807.4</ele>
        <time>2017-07-02T11:29:54Z</time>
      </trkpt>
      <trkpt lat="42.40741" lon="0.11799">
        <ele>806.7</ele>
        <time>2017-07-02T11:29:55Z</time>
      </trkpt>
      <trkpt lat="42.40744" lon="0.11796">
        <ele>805.9</ele>
        <time>2017-07-02T11:29:56Z</time>
      </trkpt>
      <trkpt lat="42.40747" lon="0.11792">
        <ele>805.1</ele>
        <time>2017-07-02T11:29:57Z</time>
      </trkpt>
      <trkpt lat="42.40749" lon="0.11788">
        <ele>804.3</ele>
        <time>2017-07-02T11:29:58Z</time>
      </trkpt>
      <trkpt lat="42.40752" lon="0.11784">
        <ele>803.3</ele>
        <time>2017-07-02T11:29:59Z</time>
      </trkpt>
      <trkpt lat="42.40755" lon="0.1178">
        <ele>803.1</ele>
        <time>2017-07-02T11:30:00Z</time>
      </trkpt>
      <trkpt lat="42.40757" lon="0.11775">
        <ele>802.1</ele>
        <time>2017-07-02T11:30:01Z</time>
      </trkpt>
      <trkpt lat="42.40759" lon="0.11771">
        <ele>801</ele>
        <time>2017-07-02T11:30:02Z</time>
      </trkpt>
      <trkpt lat="42.40761" lon="0.11768">
        <ele>800.9</ele>
        <time>2017-07-02T11:30:03Z</time>
      </trkpt>
      <trkpt lat="42.40764" lon="0.11766">
        <ele>799.8</ele>
        <time>2017-07-02T11:30:04Z</time>
      </trkpt>
      <trkpt lat="42.40766" lon="0.11764">
        <ele>798.8</ele>
        <time>2017-07-02T11:30:05Z</time>
      </trkpt>
      <trkpt lat="42.40771" lon="0.11762">
        <ele>796.9</ele>
        <time>2017-07-02T11:30:07Z</time>
      </trkpt>
      <trkpt lat="42.40775" lon="0.1176">
        <ele>796</ele>
        <time>2017-07-02T11:30:09Z</time>
      </trkpt>
      <trkpt lat="42.40778" lon="0.11754">
        <ele>795.5</ele>
        <time>2017-07-02T11:30:11Z</time>
      </trkpt>
      <trkpt lat="42.4078" lon="0.1175">
        <ele>795</ele>
        <time>2017-07-02T11:30:13Z</time>
      </trkpt>
      <trkpt lat="42.40782" lon="0.11746">
        <ele>794.6</ele>
        <time>2017-07-02T11:30:16Z</time>
      </trkpt>
      <trkpt lat="42.40785" lon="0.11742">
        <ele>794.2</ele>
        <time>2017-07-02T11:30:19Z</time>
      </trkpt>
      <trkpt lat="42.40786" lon="0.11739">
        <ele>793.9</ele>
        <time>2017-07-02T11:30:20Z</time>
      </trkpt>
      <trkpt lat="42.40787" lon="0.11732">
        <ele>793.3</ele>
        <time>2017-07-02T11:30:22Z</time>
      </trkpt>
      <trkpt lat="42.40786" lon="0.11728">
        <ele>793</ele>
        <time>2017-07-02T11:30:23Z</time>
      </trkpt>
      <trkpt lat="42.40786" lon="0.11723">
        <ele>792.6</ele>
        <time>2017-07-02T11:30:24Z</time>
      </trkpt>
      <trkpt lat="42.40785" lon="0.11719">
        <ele>792.2</ele>
        <time>2017-07-02T11:30:25Z</time>
      </trkpt>
      <trkpt lat="42.40783" lon="0.11716">
        <ele>791.9</ele>
        <time>2017-07-02T11:30:26Z</time>
      </trkpt>
      <trkpt lat="42.40782" lon="0.11712">
        <ele>791.6</ele>
        <time>2017-07-02T11:30:27Z</time>
      </trkpt>
      <trkpt lat="42.40782" lon="0.11708">
        <ele>791.3</ele>
        <time>2017-07-02T11:30:28Z</time>
      </trkpt>
      <trkpt lat="42.40783" lon="0.11704">
        <ele>790.9</ele>
        <time>2017-07-02T11:30:29Z</time>
      </trkpt>
      <trkpt lat="42.40784" lon="0.11701">
        <ele>790.6</ele>
        <time>2017-07-02T11:30:30Z</time>
      </trkpt>
      <trkpt lat="42.40786" lon="0.11698">
        <ele>790.2</ele>
        <time>2017-07-02T11:30:31Z</time>
      </trkpt>
      <trkpt lat="42.40788" lon="0.11694">
        <ele>789.7</ele>
        <time>2017-07-02T11:30:32Z</time>
      </trkpt>
      <trkpt lat="42.4079" lon="0.11689">
        <ele>789.2</ele>
        <time>2017-07-02T11:30:33Z</time>
      </trkpt>
      <trkpt lat="42.40792" lon="0.11684">
        <ele>788.5</ele>
        <time>2017-07-02T11:30:34Z</time>
      </trkpt>
      <trkpt lat="42.40795" lon="0.11681">
        <ele>788</ele>
        <time>2017-07-02T11:30:35Z</time>
      </trkpt>
      <trkpt lat="42.40797" lon="0.11679">
        <ele>787.5</ele>
        <time>2017-07-02T11:30:36Z</time>
      </trkpt>
      <trkpt lat="42.408" lon="0.11677">
        <ele>787</ele>
        <time>2017-07-02T11:30:37Z</time>
      </trkpt>
      <trkpt lat="42.40803" lon="0.11675">
        <ele>786.5</ele>
        <time>2017-07-02T11:30:38Z</time>
      </trkpt>
      <trkpt lat="42.40806" lon="0.11672">
        <ele>785.9</ele>
        <time>2017-07-02T11:30:40Z</time>
      </trkpt>
      <trkpt lat="42.40804" lon="0.11667">
        <ele>785.1</ele>
        <time>2017-07-02T11:30:43Z</time>
      </trkpt>
      <trkpt lat="42.40804" lon="0.11661">
        <ele>784.3</ele>
        <time>2017-07-02T11:30:45Z</time>
      </trkpt>
      <trkpt lat="42.40806" lon="0.11657">
        <ele>783.8</ele>
        <time>2017-07-02T11:30:46Z</time>
      </trkpt>
      <trkpt lat="42.40808" lon="0.11654">
        <ele>783.3</ele>
        <time>2017-07-02T11:30:47Z</time>
      </trkpt>
      <trkpt lat="42.4081" lon="0.11651">
        <ele>782.5</ele>
        <time>2017-07-02T11:30:48Z</time>
      </trkpt>
      <trkpt lat="42.40813" lon="0.11648">
        <ele>781.9</ele>
        <time>2017-07-02T11:30:50Z</time>
      </trkpt>
      <trkpt lat="42.40815" lon="0.11645">
        <ele>781.5</ele>
        <time>2017-07-02T11:30:52Z</time>
      </trkpt>
      <trkpt lat="42.40818" lon="0.1164">
        <ele>780.9</ele>
        <time>2017-07-02T11:30:55Z</time>
      </trkpt>
      <trkpt lat="42.40821" lon="0.11635">
        <ele>780.1</ele>
        <time>2017-07-02T11:30:57Z</time>
      </trkpt>
      <trkpt lat="42.40824" lon="0.11629">
        <ele>779.3</ele>
        <time>2017-07-02T11:30:59Z</time>
      </trkpt>
      <trkpt lat="42.40826" lon="0.11622">
        <ele>778.4</ele>
        <time>2017-07-02T11:31:01Z</time>
      </trkpt>
      <trkpt lat="42.40828" lon="0.11619">
        <ele>777.9</ele>
        <time>2017-07-02T11:31:02Z</time>
      </trkpt>
      <trkpt lat="42.4083" lon="0.11615">
        <ele>777.4</ele>
        <time>2017-07-02T11:31:03Z</time>
      </trkpt>
      <trkpt lat="42.40832" lon="0.11612">
        <ele>776.9</ele>
        <time>2017-07-02T11:31:04Z</time>
      </trkpt>
      <trkpt lat="42.40835" lon="0.11607">
        <ele>776.1</ele>
        <time>2017-07-02T11:31:06Z</time>
      </trkpt>
      <trkpt lat="42.40836" lon="0.11604">
        <ele>775.6</ele>
        <time>2017-07-02T11:31:07Z</time>
      </trkpt>
      <trkpt lat="42.40837" lon="0.116">
        <ele>775</ele>
        <time>2017-07-02T11:31:08Z</time>
      </trkpt>
      <trkpt lat="42.40838" lon="0.11596">
        <ele>774.4</ele>
        <time>2017-07-02T11:31:09Z</time>
      </trkpt>
      <trkpt lat="42.40838" lon="0.11592">
        <ele>773.7</ele>
        <time>2017-07-02T11:31:10Z</time>
      </trkpt>
      <trkpt lat="42.40839" lon="0.11588">
        <ele>773</ele>
        <time>2017-07-02T11:31:12Z</time>
      </trkpt>
      <trkpt lat="42.40841" lon="0.11584">
        <ele>772.1</ele>
        <time>2017-07-02T11:31:14Z</time>
      </trkpt>
      <trkpt lat="42.40842" lon="0.11579">
        <ele>771.3</ele>
        <time>2017-07-02T11:31:16Z</time>
      </trkpt>
      <trkpt lat="42.40841" lon="0.11574">
        <ele>771</ele>
        <time>2017-07-02T11:31:18Z</time>
      </trkpt>
      <trkpt lat="42.40843" lon="0.11568">
        <ele>770.6</ele>
        <time>2017-07-02T11:31:20Z</time>
      </trkpt>
      <trkpt lat="42.40845" lon="0.11566">
        <ele>770.4</ele>
        <time>2017-07-02T11:31:21Z</time>
      </trkpt>
      <trkpt lat="42.40847" lon="0.11563">
        <ele>770</ele>
        <time>2017-07-02T11:31:22Z</time>
      </trkpt>
      <trkpt lat="42.40852" lon="0.1156">
        <ele>769.3</ele>
        <time>2017-07-02T11:31:24Z</time>
      </trkpt>
      <trkpt lat="42.40855" lon="0.11555">
        <ele>768.6</ele>
        <time>2017-07-02T11:31:26Z</time>
      </trkpt>
      <trkpt lat="42.40856" lon="0.11551">
        <ele>768.2</ele>
        <time>2017-07-02T11:31:27Z</time>
      </trkpt>
      <trkpt lat="42.40857" lon="0.11548">
        <ele>767.9</ele>
        <time>2017-07-02T11:31:28Z</time>
      </trkpt>
      <trkpt lat="42.40856" lon="0.11541">
        <ele>767.2</ele>
        <time>2017-07-02T11:31:30Z</time>
      </trkpt>
      <trkpt lat="42.40854" lon="0.11537">
        <ele>766.5</ele>
        <time>2017-07-02T11:31:32Z</time>
      </trkpt>
      <trkpt lat="42.40855" lon="0.11532">
        <ele>765.9</ele>
        <time>2017-07-02T11:31:34Z</time>
      </trkpt>
      <trkpt lat="42.40857" lon="0.11526">
        <ele>765</ele>
        <time>2017-07-02T11:31:36Z</time>
      </trkpt>
      <trkpt lat="42.4086" lon="0.11522">
        <ele>764.1</ele>
        <time>2017-07-02T11:31:38Z</time>
      </trkpt>
      <trkpt lat="42.40863" lon="0.11518">
        <ele>763.5</ele>
        <time>2017-07-02T11:31:40Z</time>
      </trkpt>
      <trkpt lat="42.40864" lon="0.11514">
        <ele>763</ele>
        <time>2017-07-02T11:31:42Z</time>
      </trkpt>
      <trkpt lat="42.40868" lon="0.11509">
        <ele>762.2</ele>
        <time>2017-07-02T11:31:44Z</time>
      </trkpt>
      <trkpt lat="42.40871" lon="0.11506">
        <ele>761.8</ele>
        <time>2017-07-02T11:31:45Z</time>
      </trkpt>
      <trkpt lat="42.40874" lon="0.11503">
        <ele>761.3</ele>
        <time>2017-07-02T11:31:46Z</time>
      </trkpt>
      <trkpt lat="42.40878" lon="0.115">
        <ele>760.8</ele>
        <time>2017-07-02T11:31:47Z</time>
      </trkpt>
      <trkpt lat="42.40881" lon="0.11497">
        <ele>760.3</ele>
        <time>2017-07-02T11:31:48Z</time>
      </trkpt>
      <trkpt lat="42.40883" lon="0.11493">
        <ele>760</ele>
        <time>2017-07-02T11:31:49Z</time>
      </trkpt>
      <trkpt lat="42.40885" lon="0.11489">
        <ele>759.6</ele>
        <time>2017-07-02T11:31:50Z</time>
      </trkpt>
      <trkpt lat="42.40887" lon="0.11484">
        <ele>759.3</ele>
        <time>2017-07-02T11:31:51Z</time>
      </trkpt>
      <trkpt lat="42.40889" lon="0.11479">
        <ele>758.9</ele>
        <time>2017-07-02T11:31:52Z</time>
      </trkpt>
      <trkpt lat="42.4089" lon="0.11475">
        <ele>758.5</ele>
        <time>2017-07-02T11:31:53Z</time>
      </trkpt>
      <trkpt lat="42.40892" lon="0.1147">
        <ele>758.2</ele>
        <time>2017-07-02T11:31:54Z</time>
      </trkpt>
      <trkpt lat="42.40893" lon="0.11466">
        <ele>757.9</ele>
        <time>2017-07-02T11:31:55Z</time>
      </trkpt>
      <trkpt lat="42.40895" lon="0.11462">
        <ele>757.6</ele>
        <time>2017-07-02T11:31:56Z</time>
      </trkpt>
      <trkpt lat="42.40896" lon="0.11459">
        <ele>757.3</ele>
        <time>2017-07-02T11:31:57Z</time>
      </trkpt>
      <trkpt lat="42.40898" lon="0.11455">
        <ele>756.9</ele>
        <time>2017-07-02T11:31:58Z</time>
      </trkpt>
      <trkpt lat="42.40899" lon="0.11452">
        <ele>756.7</ele>
        <time>2017-07-02T11:31:59Z</time>
      </trkpt>
      <trkpt lat="42.40898" lon="0.11445">
        <ele>756.1</ele>
        <time>2017-07-02T11:32:01Z</time>
      </trkpt>
      <trkpt lat="42.40896" lon="0.11441">
        <ele>755.7</ele>
        <time>2017-07-02T11:32:03Z</time>
      </trkpt>
      <trkpt lat="42.40898" lon="0.11437">
        <ele>755.4</ele>
        <time>2017-07-02T11:32:05Z</time>
      </trkpt>
      <trkpt lat="42.409" lon="0.11432">
        <ele>755</ele>
        <time>2017-07-02T11:32:07Z</time>
      </trkpt>
      <trkpt lat="42.409" lon="0.11429">
        <ele>754.7</ele>
        <time>2017-07-02T11:32:08Z</time>
      </trkpt>
      <trkpt lat="42.409" lon="0.11424">
        <ele>754.4</ele>
        <time>2017-07-02T11:32:09Z</time>
      </trkpt>
      <trkpt lat="42.409" lon="0.1142">
        <ele>754.1</ele>
        <time>2017-07-02T11:32:10Z</time>
      </trkpt>
      <trkpt lat="42.40901" lon="0.11415">
        <ele>753.6</ele>
        <time>2017-07-02T11:32:11Z</time>
      </trkpt>
      <trkpt lat="42.40903" lon="0.11411">
        <ele>753.2</ele>
        <time>2017-07-02T11:32:12Z</time>
      </trkpt>
      <trkpt lat="42.40905" lon="0.11408">
        <ele>752.8</ele>
        <time>2017-07-02T11:32:13Z</time>
      </trkpt>
      <trkpt lat="42.40907" lon="0.11405">
        <ele>752.4</ele>
        <time>2017-07-02T11:32:14Z</time>
      </trkpt>
      <trkpt lat="42.40909" lon="0.11401">
        <ele>752</ele>
        <time>2017-07-02T11:32:15Z</time>
      </trkpt>
      <trkpt lat="42.40911" lon="0.11397">
        <ele>751.3</ele>
        <time>2017-07-02T11:32:16Z</time>
      </trkpt>
      <trkpt lat="42.40912" lon="0.11392">
        <ele>750.6</ele>
        <time>2017-07-02T11:32:17Z</time>
      </trkpt>
      <trkpt lat="42.40912" lon="0.11387">
        <ele>749.7</ele>
        <time>2017-07-02T11:32:18Z</time>
      </trkpt>
      <trkpt lat="42.4091" lon="0.11381">
        <ele>748.9</ele>
        <time>2017-07-02T11:32:19Z</time>
      </trkpt>
      <trkpt lat="42.40908" lon="0.11377">
        <ele>748.1</ele>
        <time>2017-07-02T11:32:20Z</time>
      </trkpt>
      <trkpt lat="42.40905" lon="0.11374">
        <ele>747.4</ele>
        <time>2017-07-02T11:32:21Z</time>
      </trkpt>
      <trkpt lat="42.40902" lon="0.11372">
        <ele>746.8</ele>
        <time>2017-07-02T11:32:22Z</time>
      </trkpt>
      <trkpt lat="42.40899" lon="0.11368">
        <ele>746.2</ele>
        <time>2017-07-02T11:32:24Z</time>
      </trkpt>
      <trkpt lat="42.409" lon="0.11364">
        <ele>745.6</ele>
        <time>2017-07-02T11:32:25Z</time>
      </trkpt>
      <trkpt lat="42.40901" lon="0.11359">
        <ele>745</ele>
        <time>2017-07-02T11:32:26Z</time>
      </trkpt>
      <trkpt lat="42.40903" lon="0.11356">
        <ele>744.5</ele>
        <time>2017-07-02T11:32:27Z</time>
      </trkpt>
      <trkpt lat="42.40906" lon="0.11352">
        <ele>743.8</ele>
        <time>2017-07-02T11:32:29Z</time>
      </trkpt>
      <trkpt lat="42.40908" lon="0.11349">
        <ele>743.3</ele>
        <time>2017-07-02T11:32:30Z</time>
      </trkpt>
      <trkpt lat="42.40911" lon="0.11346">
        <ele>742.7</ele>
        <time>2017-07-02T11:32:31Z</time>
      </trkpt>
      <trkpt lat="42.40914" lon="0.11342">
        <ele>741.8</ele>
        <time>2017-07-02T11:32:32Z</time>
      </trkpt>
      <trkpt lat="42.40916" lon="0.11338">
        <ele>741</ele>
        <time>2017-07-02T11:32:33Z</time>
      </trkpt>
      <trkpt lat="42.40917" lon="0.11334">
        <ele>740.2</ele>
        <time>2017-07-02T11:32:34Z</time>
      </trkpt>
      <trkpt lat="42.40917" lon="0.1133">
        <ele>739.5</ele>
        <time>2017-07-02T11:32:35Z</time>
      </trkpt>
      <trkpt lat="42.40919" lon="0.11324">
        <ele>738.3</ele>
        <time>2017-07-02T11:32:37Z</time>
      </trkpt>
      <trkpt lat="42.4092" lon="0.1132">
        <ele>737.7</ele>
        <time>2017-07-02T11:32:39Z</time>
      </trkpt>
      <trkpt lat="42.40919" lon="0.11314">
        <ele>736.8</ele>
        <time>2017-07-02T11:32:41Z</time>
      </trkpt>
      <trkpt lat="42.40921" lon="0.11308">
        <ele>735.9</ele>
        <time>2017-07-02T11:32:43Z</time>
      </trkpt>
      <trkpt lat="42.40923" lon="0.11305">
        <ele>735.4</ele>
        <time>2017-07-02T11:32:44Z</time>
      </trkpt>
      <trkpt lat="42.40926" lon="0.11299">
        <ele>734.2</ele>
        <time>2017-07-02T11:32:46Z</time>
      </trkpt>
      <trkpt lat="42.40928" lon="0.11295">
        <ele>733.5</ele>
        <time>2017-07-02T11:32:47Z</time>
      </trkpt>
      <trkpt lat="42.4093" lon="0.11291">
        <ele>732.7</ele>
        <time>2017-07-02T11:32:48Z</time>
      </trkpt>
      <trkpt lat="42.4093" lon="0.11285">
        <ele>731.5</ele>
        <time>2017-07-02T11:32:50Z</time>
      </trkpt>
      <trkpt lat="42.40929" lon="0.11281">
        <ele>730.8</ele>
        <time>2017-07-02T11:32:51Z</time>
      </trkpt>
      <trkpt lat="42.40927" lon="0.11279">
        <ele>730</ele>
        <time>2017-07-02T11:32:52Z</time>
      </trkpt>
      <trkpt lat="42.40925" lon="0.11276">
        <ele>729.1</ele>
        <time>2017-07-02T11:32:53Z</time>
      </trkpt>
      <trkpt lat="42.40923" lon="0.11273">
        <ele>728.3</ele>
        <time>2017-07-02T11:32:54Z</time>
      </trkpt>
      <trkpt lat="42.40921" lon="0.11269">
        <ele>727.4</ele>
        <time>2017-07-02T11:32:55Z</time>
      </trkpt>
      <trkpt lat="42.4092" lon="0.11265">
        <ele>726.5</ele>
        <time>2017-07-02T11:32:56Z</time>
      </trkpt>
      <trkpt lat="42.40921" lon="0.11259">
        <ele>725.3</ele>
        <time>2017-07-02T11:32:58Z</time>
      </trkpt>
      <trkpt lat="42.40922" lon="0.11254">
        <ele>724.3</ele>
        <time>2017-07-02T11:33:00Z</time>
      </trkpt>
      <trkpt lat="42.40921" lon="0.11247">
        <ele>723.1</ele>
        <time>2017-07-02T11:33:02Z</time>
      </trkpt>
      <trkpt lat="42.40919" lon="0.11243">
        <ele>722.1</ele>
        <time>2017-07-02T11:33:04Z</time>
      </trkpt>
      <trkpt lat="42.40918" lon="0.11239">
        <ele>721.1</ele>
        <time>2017-07-02T11:33:06Z</time>
      </trkpt>
      <trkpt lat="42.40918" lon="0.11233">
        <ele>719.9</ele>
        <time>2017-07-02T11:33:08Z</time>
      </trkpt>
      <trkpt lat="42.40919" lon="0.11226">
        <ele>718.5</ele>
        <time>2017-07-02T11:33:10Z</time>
      </trkpt>
      <trkpt lat="42.40921" lon="0.11221">
        <ele>717.4</ele>
        <time>2017-07-02T11:33:12Z</time>
      </trkpt>
      <trkpt lat="42.40923" lon="0.11217">
        <ele>716.5</ele>
        <time>2017-07-02T11:33:14Z</time>
      </trkpt>
      <trkpt lat="42.40923" lon="0.11213">
        <ele>715.7</ele>
        <time>2017-07-02T11:33:16Z</time>
      </trkpt>
      <trkpt lat="42.40921" lon="0.11208">
        <ele>714.6</ele>
        <time>2017-07-02T11:33:18Z</time>
      </trkpt>
      <trkpt lat="42.40921" lon="0.11204">
        <ele>713.9</ele>
        <time>2017-07-02T11:33:19Z</time>
      </trkpt>
      <trkpt lat="42.40921" lon="0.112">
        <ele>713.2</ele>
        <time>2017-07-02T11:33:20Z</time>
      </trkpt>
      <trkpt lat="42.40923" lon="0.11195">
        <ele>712.1</ele>
        <time>2017-07-02T11:33:22Z</time>
      </trkpt>
      <trkpt lat="42.40919" lon="0.1119">
        <ele>710.7</ele>
        <time>2017-07-02T11:33:24Z</time>
      </trkpt>
      <trkpt lat="42.40915" lon="0.11187">
        <ele>709.3</ele>
        <time>2017-07-02T11:33:26Z</time>
      </trkpt>
      <trkpt lat="42.40913" lon="0.11181">
        <ele>707.8</ele>
        <time>2017-07-02T11:33:28Z</time>
      </trkpt>
      <trkpt lat="42.40912" lon="0.11176">
        <ele>706.7</ele>
        <time>2017-07-02T11:33:29Z</time>
      </trkpt>
      <trkpt lat="42.4091" lon="0.11172">
        <ele>705.9</ele>
        <time>2017-07-02T11:33:30Z</time>
      </trkpt>
      <trkpt lat="42.40907" lon="0.11169">
        <ele>705.4</ele>
        <time>2017-07-02T11:33:31Z</time>
      </trkpt>
      <trkpt lat="42.40905" lon="0.11166">
        <ele>705.2</ele>
        <time>2017-07-02T11:33:32Z</time>
      </trkpt>
      <trkpt lat="42.409" lon="0.11163">
        <ele>704.8</ele>
        <time>2017-07-02T11:33:34Z</time>
      </trkpt>
      <trkpt lat="42.40897" lon="0.11162">
        <ele>704.5</ele>
        <time>2017-07-02T11:33:36Z</time>
      </trkpt>
      <trkpt lat="42.40894" lon="0.11162">
        <ele>704.3</ele>
        <time>2017-07-02T11:33:38Z</time>
      </trkpt>
      <trkpt lat="42.40892" lon="0.11158">
        <ele>704</ele>
        <time>2017-07-02T11:33:48Z</time>
      </trkpt>
      <trkpt lat="42.40891" lon="0.11155">
        <ele>703.7</ele>
        <time>2017-07-02T11:33:50Z</time>
      </trkpt>
      <trkpt lat="42.40889" lon="0.1115">
        <ele>703.1</ele>
        <time>2017-07-02T11:33:52Z</time>
      </trkpt>
      <trkpt lat="42.40891" lon="0.11143">
        <ele>702.3</ele>
        <time>2017-07-02T11:33:54Z</time>
      </trkpt>
      <trkpt lat="42.40892" lon="0.11139">
        <ele>701.8</ele>
        <time>2017-07-02T11:33:55Z</time>
      </trkpt>
      <trkpt lat="42.40892" lon="0.11134">
        <ele>701</ele>
        <time>2017-07-02T11:33:56Z</time>
      </trkpt>
      <trkpt lat="42.40892" lon="0.11129">
        <ele>700.2</ele>
        <time>2017-07-02T11:33:57Z</time>
      </trkpt>
      <trkpt lat="42.40891" lon="0.11125">
        <ele>699.4</ele>
        <time>2017-07-02T11:33:58Z</time>
      </trkpt>
      <trkpt lat="42.40887" lon="0.11119">
        <ele>698.3</ele>
        <time>2017-07-02T11:34:00Z</time>
      </trkpt>
      <trkpt lat="42.40885" lon="0.11116">
        <ele>697.6</ele>
        <time>2017-07-02T11:34:01Z</time>
      </trkpt>
      <trkpt lat="42.40881" lon="0.11113">
        <ele>696.5</ele>
        <time>2017-07-02T11:34:03Z</time>
      </trkpt>
      <trkpt lat="42.40878" lon="0.11109">
        <ele>695.6</ele>
        <time>2017-07-02T11:34:05Z</time>
      </trkpt>
      <trkpt lat="42.40876" lon="0.11106">
        <ele>695</ele>
        <time>2017-07-02T11:34:06Z</time>
      </trkpt>
      <trkpt lat="42.40874" lon="0.11103">
        <ele>694.5</ele>
        <time>2017-07-02T11:34:07Z</time>
      </trkpt>
      <trkpt lat="42.40872" lon="0.11101">
        <ele>694</ele>
        <time>2017-07-02T11:34:08Z</time>
      </trkpt>
      <trkpt lat="42.40869" lon="0.11098">
        <ele>693.5</ele>
        <time>2017-07-02T11:34:10Z</time>
      </trkpt>
      <trkpt lat="42.40867" lon="0.11095">
        <ele>692.9</ele>
        <time>2017-07-02T11:34:12Z</time>
      </trkpt>
      <trkpt lat="42.40863" lon="0.11092">
        <ele>692.4</ele>
        <time>2017-07-02T11:34:14Z</time>
      </trkpt>
      <trkpt lat="42.40862" lon="0.11086">
        <ele>691.6</ele>
        <time>2017-07-02T11:34:16Z</time>
      </trkpt>
      <trkpt lat="42.40865" lon="0.1108">
        <ele>690.4</ele>
        <time>2017-07-02T11:34:18Z</time>
      </trkpt>
      <trkpt lat="42.40865" lon="0.11074">
        <ele>689</ele>
        <time>2017-07-02T11:34:20Z</time>
      </trkpt>
      <trkpt lat="42.40863" lon="0.1107">
        <ele>688</ele>
        <time>2017-07-02T11:34:21Z</time>
      </trkpt>
      <trkpt lat="42.40862" lon="0.11067">
        <ele>687.1</ele>
        <time>2017-07-02T11:34:22Z</time>
      </trkpt>
      <trkpt lat="42.40858" lon="0.11063">
        <ele>685.8</ele>
        <time>2017-07-02T11:34:24Z</time>
      </trkpt>
      <trkpt lat="42.40856" lon="0.11061">
        <ele>684.9</ele>
        <time>2017-07-02T11:34:26Z</time>
      </trkpt>
      <trkpt lat="42.40859" lon="0.1106">
        <ele>684</ele>
        <time>2017-07-02T11:34:45Z</time>
      </trkpt>
      <trkpt lat="42.40861" lon="0.11062">
        <ele>682.8</ele>
        <time>2017-07-02T11:35:08Z</time>
      </trkpt>
      <trkpt lat="42.40863" lon="0.11058">
        <ele>681.7</ele>
        <time>2017-07-02T11:35:13Z</time>
      </trkpt>
      <trkpt lat="42.40861" lon="0.11054">
        <ele>680.4</ele>
        <time>2017-07-02T11:35:18Z</time>
      </trkpt>
      <trkpt lat="42.4086" lon="0.1105">
        <ele>679.3</ele>
        <time>2017-07-02T11:35:26Z</time>
      </trkpt>
      <trkpt lat="42.40858" lon="0.11046">
        <ele>678</ele>
        <time>2017-07-02T11:35:28Z</time>
      </trkpt>
      <trkpt lat="42.40854" lon="0.1104">
        <ele>676.4</ele>
        <time>2017-07-02T11:35:30Z</time>
      </trkpt>
      <trkpt lat="42.40853" lon="0.11037">
        <ele>675.7</ele>
        <time>2017-07-02T11:35:31Z</time>
      </trkpt>
      <trkpt lat="42.40851" lon="0.11034">
        <ele>675</ele>
        <time>2017-07-02T11:35:32Z</time>
      </trkpt>
      <trkpt lat="42.40848" lon="0.11029">
        <ele>673.8</ele>
        <time>2017-07-02T11:35:34Z</time>
      </trkpt>
      <trkpt lat="42.40845" lon="0.11024">
        <ele>672.7</ele>
        <time>2017-07-02T11:35:36Z</time>
      </trkpt>
      <trkpt lat="42.40843" lon="0.1102">
        <ele>671.8</ele>
        <time>2017-07-02T11:35:38Z</time>
      </trkpt>
      <trkpt lat="42.40842" lon="0.11015">
        <ele>670.8</ele>
        <time>2017-07-02T11:35:40Z</time>
      </trkpt>
      <trkpt lat="42.40841" lon="0.11009">
        <ele>669.4</ele>
        <time>2017-07-02T11:35:42Z</time>
      </trkpt>
      <trkpt lat="42.4084" lon="0.11005">
        <ele>668.2</ele>
        <time>2017-07-02T11:35:43Z</time>
      </trkpt>
      <trkpt lat="42.4084" lon="0.11001">
        <ele>667</ele>
        <time>2017-07-02T11:35:44Z</time>
      </trkpt>
      <trkpt lat="42.40839" lon="0.10995">
        <ele>665.4</ele>
        <time>2017-07-02T11:35:46Z</time>
      </trkpt>
      <trkpt lat="42.4084" lon="0.10991">
        <ele>664.5</ele>
        <time>2017-07-02T11:35:51Z</time>
      </trkpt>
      <trkpt lat="42.40842" lon="0.10989">
        <ele>663.4</ele>
        <time>2017-07-02T11:35:57Z</time>
      </trkpt>
      <trkpt lat="42.40845" lon="0.10989">
        <ele>662.6</ele>
        <time>2017-07-02T11:36:04Z</time>
      </trkpt>
      <trkpt lat="42.40844" lon="0.10985">
        <ele>661.4</ele>
        <time>2017-07-02T11:36:07Z</time>
      </trkpt>
      <trkpt lat="42.40842" lon="0.1098">
        <ele>660.1</ele>
        <time>2017-07-02T11:36:09Z</time>
      </trkpt>
      <trkpt lat="42.40841" lon="0.10975">
        <ele>658.9</ele>
        <time>2017-07-02T11:36:11Z</time>
      </trkpt>
      <trkpt lat="42.40841" lon="0.1097">
        <ele>658.1</ele>
        <time>2017-07-02T11:36:13Z</time>
      </trkpt>
      <trkpt lat="42.4084" lon="0.10966">
        <ele>657.3</ele>
        <time>2017-07-02T11:36:15Z</time>
      </trkpt>
      <trkpt lat="42.40839" lon="0.10962">
        <ele>656.5</ele>
        <time>2017-07-02T11:36:18Z</time>
      </trkpt>
      <trkpt lat="42.40839" lon="0.10958">
        <ele>656</ele>
        <time>2017-07-02T11:36:20Z</time>
      </trkpt>
      <trkpt lat="42.40841" lon="0.10952">
        <ele>655.2</ele>
        <time>2017-07-02T11:36:22Z</time>
      </trkpt>
      <trkpt lat="42.40843" lon="0.10948">
        <ele>654.5</ele>
        <time>2017-07-02T11:36:24Z</time>
      </trkpt>
      <trkpt lat="42.40843" lon="0.10942">
        <ele>653.8</ele>
        <time>2017-07-02T11:36:26Z</time>
      </trkpt>
      <trkpt lat="42.40843" lon="0.10938">
        <ele>653.2</ele>
        <time>2017-07-02T11:36:27Z</time>
      </trkpt>
      <trkpt lat="42.40842" lon="0.10933">
        <ele>652.6</ele>
        <time>2017-07-02T11:36:28Z</time>
      </trkpt>
      <trkpt lat="42.40842" lon="0.10928">
        <ele>651.9</ele>
        <time>2017-07-02T11:36:29Z</time>
      </trkpt>
      <trkpt lat="42.40842" lon="0.10924">
        <ele>651.3</ele>
        <time>2017-07-02T11:36:30Z</time>
      </trkpt>
      <trkpt lat="42.40842" lon="0.1092">
        <ele>650.7</ele>
        <time>2017-07-02T11:36:31Z</time>
      </trkpt>
      <trkpt lat="42.40841" lon="0.10915">
        <ele>650</ele>
        <time>2017-07-02T11:36:32Z</time>
      </trkpt>
      <trkpt lat="42.40839" lon="0.1091">
        <ele>649.3</ele>
        <time>2017-07-02T11:36:33Z</time>
      </trkpt>
      <trkpt lat="42.40837" lon="0.10907">
        <ele>648.7</ele>
        <time>2017-07-02T11:36:34Z</time>
      </trkpt>
      <trkpt lat="42.40834" lon="0.10903">
        <ele>647.8</ele>
        <time>2017-07-02T11:36:35Z</time>
      </trkpt>
      <trkpt lat="42.40831" lon="0.109">
        <ele>647</ele>
        <time>2017-07-02T11:36:36Z</time>
      </trkpt>
      <trkpt lat="42.40828" lon="0.10898">
        <ele>646.3</ele>
        <time>2017-07-02T11:36:37Z</time>
      </trkpt>
      <trkpt lat="42.40825" lon="0.10894">
        <ele>645.4</ele>
        <time>2017-07-02T11:36:39Z</time>
      </trkpt>
      <trkpt lat="42.40824" lon="0.10888">
        <ele>644.5</ele>
        <time>2017-07-02T11:36:41Z</time>
      </trkpt>
      <trkpt lat="42.40823" lon="0.10884">
        <ele>643.9</ele>
        <time>2017-07-02T11:36:43Z</time>
      </trkpt>
      <trkpt lat="42.40818" lon="0.10881">
        <ele>642.9</ele>
        <time>2017-07-02T11:36:45Z</time>
      </trkpt>
      <trkpt lat="42.40814" lon="0.1088">
        <ele>642.2</ele>
        <time>2017-07-02T11:36:46Z</time>
      </trkpt>
      <trkpt lat="42.40811" lon="0.10879">
        <ele>641.7</ele>
        <time>2017-07-02T11:36:47Z</time>
      </trkpt>
      <trkpt lat="42.40808" lon="0.10873">
        <ele>640.6</ele>
        <time>2017-07-02T11:36:49Z</time>
      </trkpt>
      <trkpt lat="42.40807" lon="0.10867">
        <ele>639.7</ele>
        <time>2017-07-02T11:36:50Z</time>
      </trkpt>
      <trkpt lat="42.40808" lon="0.10863">
        <ele>638.9</ele>
        <time>2017-07-02T11:36:51Z</time>
      </trkpt>
      <trkpt lat="42.40808" lon="0.10857">
        <ele>637.8</ele>
        <time>2017-07-02T11:36:53Z</time>
      </trkpt>
      <trkpt lat="42.40809" lon="0.10851">
        <ele>636.6</ele>
        <time>2017-07-02T11:36:55Z</time>
      </trkpt>
      <trkpt lat="42.40811" lon="0.10846">
        <ele>635.4</ele>
        <time>2017-07-02T11:36:57Z</time>
      </trkpt>
      <trkpt lat="42.40819" lon="0.10828">
        <ele>629.7</ele>
        <time>2017-07-02T11:38:03Z</time>
      </trkpt>
      <trkpt lat="42.40821" lon="0.10826">
        <ele>628.7</ele>
        <time>2017-07-02T11:38:06Z</time>
      </trkpt>
      <trkpt lat="42.40824" lon="0.10824">
        <ele>627.5</ele>
        <time>2017-07-02T11:38:14Z</time>
      </trkpt>
      <trkpt lat="42.40826" lon="0.1082">
        <ele>626.5</ele>
        <time>2017-07-02T11:38:23Z</time>
      </trkpt>
      <trkpt lat="42.40826" lon="0.10817">
        <ele>625.4</ele>
        <time>2017-07-02T11:38:27Z</time>
      </trkpt>
      <trkpt lat="42.40827" lon="0.10813">
        <ele>624.1</ele>
        <time>2017-07-02T11:38:36Z</time>
      </trkpt>
      <trkpt lat="42.40825" lon="0.1081">
        <ele>623.2</ele>
        <time>2017-07-02T11:38:43Z</time>
      </trkpt>
      <trkpt lat="42.40825" lon="0.10806">
        <ele>622.1</ele>
        <time>2017-07-02T11:38:49Z</time>
      </trkpt>
      <trkpt lat="42.40825" lon="0.10802">
        <ele>620.9</ele>
        <time>2017-07-02T11:38:55Z</time>
      </trkpt>
      <trkpt lat="42.40826" lon="0.10798">
        <ele>619.8</ele>
        <time>2017-07-02T11:38:58Z</time>
      </trkpt>
      <trkpt lat="42.40827" lon="0.10794">
        <ele>618.9</ele>
        <time>2017-07-02T11:39:07Z</time>
      </trkpt>
      <trkpt lat="42.40829" lon="0.10791">
        <ele>617.9</ele>
        <time>2017-07-02T11:39:10Z</time>
      </trkpt>
      <trkpt lat="42.40832" lon="0.10788">
        <ele>616.9</ele>
        <time>2017-07-02T11:39:15Z</time>
      </trkpt>
      <trkpt lat="42.40833" lon="0.10784">
        <ele>616</ele>
        <time>2017-07-02T11:39:20Z</time>
      </trkpt>
      <trkpt lat="42.40837" lon="0.10782">
        <ele>614.8</ele>
        <time>2017-07-02T11:39:22Z</time>
      </trkpt>
      <trkpt lat="42.40839" lon="0.10777">
        <ele>613.5</ele>
        <time>2017-07-02T11:39:25Z</time>
      </trkpt>
      <trkpt lat="42.4084" lon="0.10771">
        <ele>612.4</ele>
        <time>2017-07-02T11:39:27Z</time>
      </trkpt>
      <trkpt lat="42.40841" lon="0.10765">
        <ele>611.3</ele>
        <time>2017-07-02T11:39:29Z</time>
      </trkpt>
      <trkpt lat="42.40841" lon="0.10761">
        <ele>610.6</ele>
        <time>2017-07-02T11:39:30Z</time>
      </trkpt>
      <trkpt lat="42.40842" lon="0.10755">
        <ele>609.4</ele>
        <time>2017-07-02T11:39:32Z</time>
      </trkpt>
      <trkpt lat="42.40843" lon="0.10751">
        <ele>608.6</ele>
        <time>2017-07-02T11:39:37Z</time>
      </trkpt>
      <trkpt lat="42.40842" lon="0.10748">
        <ele>607.9</ele>
        <time>2017-07-02T11:39:48Z</time>
      </trkpt>
      <trkpt lat="42.40844" lon="0.10744">
        <ele>607.2</ele>
        <time>2017-07-02T11:39:52Z</time>
      </trkpt>
      <trkpt lat="42.40847" lon="0.10742">
        <ele>606.4</ele>
        <time>2017-07-02T11:39:55Z</time>
      </trkpt>
      <trkpt lat="42.40851" lon="0.10739">
        <ele>605.3</ele>
        <time>2017-07-02T11:39:57Z</time>
      </trkpt>
      <trkpt lat="42.40853" lon="0.10736">
        <ele>604.6</ele>
        <time>2017-07-02T11:39:58Z</time>
      </trkpt>
      <trkpt lat="42.40855" lon="0.10732">
        <ele>603.8</ele>
        <time>2017-07-02T11:39:59Z</time>
      </trkpt>
      <trkpt lat="42.40856" lon="0.10729">
        <ele>603</ele>
        <time>2017-07-02T11:40:00Z</time>
      </trkpt>
      <trkpt lat="42.40859" lon="0.10725">
        <ele>601.8</ele>
        <time>2017-07-02T11:40:02Z</time>
      </trkpt>
      <trkpt lat="42.40865" lon="0.10722">
        <ele>600.3</ele>
        <time>2017-07-02T11:40:04Z</time>
      </trkpt>
      <trkpt lat="42.40867" lon="0.1072">
        <ele>599.5</ele>
        <time>2017-07-02T11:40:05Z</time>
      </trkpt>
      <trkpt lat="42.40869" lon="0.10718">
        <ele>598.8</ele>
        <time>2017-07-02T11:40:06Z</time>
      </trkpt>
      <trkpt lat="42.40872" lon="0.10713">
        <ele>597.5</ele>
        <time>2017-07-02T11:40:08Z</time>
      </trkpt>
      <trkpt lat="42.40875" lon="0.1071">
        <ele>596.7</ele>
        <time>2017-07-02T11:40:10Z</time>
      </trkpt>
      <trkpt lat="42.40876" lon="0.10705">
        <ele>595.7</ele>
        <time>2017-07-02T11:40:12Z</time>
      </trkpt>
      <trkpt lat="42.40874" lon="0.10699">
        <ele>594.6</ele>
        <time>2017-07-02T11:40:14Z</time>
      </trkpt>
      <trkpt lat="42.40872" lon="0.10693">
        <ele>593.5</ele>
        <time>2017-07-02T11:40:16Z</time>
      </trkpt>
      <trkpt lat="42.40871" lon="0.10688">
        <ele>592.7</ele>
        <time>2017-07-02T11:40:18Z</time>
      </trkpt>
      <trkpt lat="42.40873" lon="0.10683">
        <ele>591.5</ele>
        <time>2017-07-02T11:40:20Z</time>
      </trkpt>
      <trkpt lat="42.40874" lon="0.10677">
        <ele>590.4</ele>
        <time>2017-07-02T11:40:22Z</time>
      </trkpt>
      <trkpt lat="42.40874" lon="0.10673">
        <ele>589.2</ele>
        <time>2017-07-02T11:40:24Z</time>
      </trkpt>
      <trkpt lat="42.40877" lon="0.1067">
        <ele>587.7</ele>
        <time>2017-07-02T11:40:37Z</time>
      </trkpt>
      <trkpt lat="42.4088" lon="0.10673">
        <ele>586.9</ele>
        <time>2017-07-02T11:40:40Z</time>
      </trkpt>
      <trkpt lat="42.40881" lon="0.10679">
        <ele>586.1</ele>
        <time>2017-07-02T11:40:42Z</time>
      </trkpt>
      <trkpt lat="42.40883" lon="0.10684">
        <ele>585.4</ele>
        <time>2017-07-02T11:40:44Z</time>
      </trkpt>
      <trkpt lat="42.40883" lon="0.10689">
        <ele>584.9</ele>
        <time>2017-07-02T11:40:45Z</time>
      </trkpt>
      <trkpt lat="42.40884" lon="0.10693">
        <ele>584.3</ele>
        <time>2017-07-02T11:40:46Z</time>
      </trkpt>
      <trkpt lat="42.40885" lon="0.10699">
        <ele>583.6</ele>
        <time>2017-07-02T11:40:47Z</time>
      </trkpt>
      <trkpt lat="42.40886" lon="0.10704">
        <ele>583</ele>
        <time>2017-07-02T11:40:48Z</time>
      </trkpt>
      <trkpt lat="42.40888" lon="0.10709">
        <ele>582.2</ele>
        <time>2017-07-02T11:40:49Z</time>
      </trkpt>
      <trkpt lat="42.40889" lon="0.10714">
        <ele>581.4</ele>
        <time>2017-07-02T11:40:50Z</time>
      </trkpt>
      <trkpt lat="42.40891" lon="0.10718">
        <ele>580.6</ele>
        <time>2017-07-02T11:40:51Z</time>
      </trkpt>
      <trkpt lat="42.40892" lon="0.10722">
        <ele>579.7</ele>
        <time>2017-07-02T11:40:52Z</time>
      </trkpt>
      <trkpt lat="42.40894" lon="0.10725">
        <ele>578.9</ele>
        <time>2017-07-02T11:40:53Z</time>
      </trkpt>
      <trkpt lat="42.40896" lon="0.10728">
        <ele>577.9</ele>
        <time>2017-07-02T11:40:54Z</time>
      </trkpt>
      <trkpt lat="42.40898" lon="0.10731">
        <ele>577</ele>
        <time>2017-07-02T11:40:55Z</time>
      </trkpt>
      <trkpt lat="42.409" lon="0.10735">
        <ele>576</ele>
        <time>2017-07-02T11:40:57Z</time>
      </trkpt>
      <trkpt lat="42.40903" lon="0.10734">
        <ele>575.2</ele>
        <time>2017-07-02T11:40:59Z</time>
      </trkpt>
      <trkpt lat="42.40905" lon="0.10731">
        <ele>574.4</ele>
        <time>2017-07-02T11:41:00Z</time>
      </trkpt>
      <trkpt lat="42.40908" lon="0.10726">
        <ele>573.2</ele>
        <time>2017-07-02T11:41:01Z</time>
      </trkpt>
      <trkpt lat="42.4091" lon="0.10721">
        <ele>572.1</ele>
        <time>2017-07-02T11:41:02Z</time>
      </trkpt>
      <trkpt lat="42.40912" lon="0.10716">
        <ele>571.2</ele>
        <time>2017-07-02T11:41:03Z</time>
      </trkpt>
      <trkpt lat="42.40914" lon="0.10712">
        <ele>570.6</ele>
        <time>2017-07-02T11:41:04Z</time>
      </trkpt>
      <trkpt lat="42.40917" lon="0.1071">
        <ele>570.1</ele>
        <time>2017-07-02T11:41:05Z</time>
      </trkpt>
      <trkpt lat="42.40921" lon="0.10708">
        <ele>569.2</ele>
        <time>2017-07-02T11:41:07Z</time>
      </trkpt>
      <trkpt lat="42.40924" lon="0.10706">
        <ele>568.4</ele>
        <time>2017-07-02T11:41:09Z</time>
      </trkpt>
      <trkpt lat="42.40925" lon="0.10702">
        <ele>567.3</ele>
        <time>2017-07-02T11:41:10Z</time>
      </trkpt>
      <trkpt lat="42.40927" lon="0.10698">
        <ele>566.3</ele>
        <time>2017-07-02T11:41:11Z</time>
      </trkpt>
      <trkpt lat="42.40927" lon="0.10694">
        <ele>565.7</ele>
        <time>2017-07-02T11:41:12Z</time>
      </trkpt>
      <trkpt lat="42.40928" lon="0.10689">
        <ele>565.4</ele>
        <time>2017-07-02T11:41:13Z</time>
      </trkpt>
      <trkpt lat="42.40929" lon="0.10684">
        <ele>565.1</ele>
        <time>2017-07-02T11:41:14Z</time>
      </trkpt>
      <trkpt lat="42.40931" lon="0.10681">
        <ele>564.5</ele>
        <time>2017-07-02T11:41:15Z</time>
      </trkpt>
      <trkpt lat="42.40934" lon="0.10681">
        <ele>563.9</ele>
        <time>2017-07-02T11:41:18Z</time>
      </trkpt>
      <trkpt lat="42.4093" lon="0.10681">
        <ele>563.4</ele>
        <time>2017-07-02T11:41:24Z</time>
      </trkpt>
      <trkpt lat="42.40929" lon="0.10685">
        <ele>563.3</ele>
        <time>2017-07-02T11:41:29Z</time>
      </trkpt>
      <trkpt lat="42.40927" lon="0.10689">
        <ele>563.2</ele>
        <time>2017-07-02T11:41:32Z</time>
      </trkpt>
      <trkpt lat="42.40926" lon="0.10693">
        <ele>563.1</ele>
        <time>2017-07-02T11:41:53Z</time>
      </trkpt>
      <trkpt lat="42.40925" lon="0.10698">
        <ele>563.1</ele>
        <time>2017-07-02T11:41:56Z</time>
      </trkpt>
      <trkpt lat="42.40925" lon="0.10702">
        <ele>563.1</ele>
        <time>2017-07-02T11:41:59Z</time>
      </trkpt>
      <trkpt lat="42.40928" lon="0.10703">
        <ele>563.1</ele>
        <time>2017-07-02T11:42:32Z</time>
      </trkpt>
      <trkpt lat="42.40931" lon="0.10705">
        <ele>563.2</ele>
        <time>2017-07-02T11:42:34Z</time>
      </trkpt>
      <trkpt lat="42.40936" lon="0.10709">
        <ele>563.2</ele>
        <time>2017-07-02T11:43:25Z</time>
      </trkpt>
      <trkpt lat="42.40939" lon="0.10711">
        <ele>563.2</ele>
        <time>2017-07-02T11:43:28Z</time>
      </trkpt>
      <trkpt lat="42.40939" lon="0.10715">
        <ele>563.2</ele>
        <time>2017-07-02T11:43:31Z</time>
      </trkpt>
      <trkpt lat="42.40939" lon="0.10721">
        <ele>563.2</ele>
        <time>2017-07-02T11:43:33Z</time>
      </trkpt>
      <trkpt lat="42.40939" lon="0.10727">
        <ele>563.2</ele>
        <time>2017-07-02T11:43:35Z</time>
      </trkpt>
      <trkpt lat="42.4094" lon="0.10734">
        <ele>563.3</ele>
        <time>2017-07-02T11:43:37Z</time>
      </trkpt>
      <trkpt lat="42.4094" lon="0.10738">
        <ele>563.3</ele>
        <time>2017-07-02T11:43:38Z</time>
      </trkpt>
      <trkpt lat="42.4094" lon="0.10742">
        <ele>563.3</ele>
        <time>2017-07-02T11:43:39Z</time>
      </trkpt>
      <trkpt lat="42.4094" lon="0.10746">
        <ele>563.3</ele>
        <time>2017-07-02T11:43:40Z</time>
      </trkpt>
      <trkpt lat="42.4094" lon="0.1075">
        <ele>563.4</ele>
        <time>2017-07-02T11:43:41Z</time>
      </trkpt>
      <trkpt lat="42.40941" lon="0.10754">
        <ele>563.4</ele>
        <time>2017-07-02T11:43:42Z</time>
      </trkpt>
      <trkpt lat="42.40941" lon="0.10759">
        <ele>563.4</ele>
        <time>2017-07-02T11:43:43Z</time>
      </trkpt>
      <trkpt lat="42.40941" lon="0.10765">
        <ele>563.5</ele>
        <time>2017-07-02T11:43:45Z</time>
      </trkpt>
      <trkpt lat="42.40942" lon="0.1077">
        <ele>563.5</ele>
        <time>2017-07-02T11:43:47Z</time>
      </trkpt>
      <trkpt lat="42.40941" lon="0.10776">
        <ele>563.6</ele>
        <time>2017-07-02T11:43:49Z</time>
      </trkpt>
      <trkpt lat="42.40939" lon="0.10781">
        <ele>563.7</ele>
        <time>2017-07-02T11:43:51Z</time>
      </trkpt>
      <trkpt lat="42.40939" lon="0.10789">
        <ele>563.8</ele>
        <time>2017-07-02T11:43:53Z</time>
      </trkpt>
      <trkpt lat="42.4094" lon="0.10795">
        <ele>563.9</ele>
        <time>2017-07-02T11:43:54Z</time>
      </trkpt>
      <trkpt lat="42.40941" lon="0.10801">
        <ele>564.1</ele>
        <time>2017-07-02T11:43:55Z</time>
      </trkpt>
      <trkpt lat="42.40941" lon="0.10806">
        <ele>564.2</ele>
        <time>2017-07-02T11:43:56Z</time>
      </trkpt>
      <trkpt lat="42.40942" lon="0.10811">
        <ele>564.3</ele>
        <time>2017-07-02T11:43:57Z</time>
      </trkpt>
      <trkpt lat="42.40943" lon="0.10817">
        <ele>564.6</ele>
        <time>2017-07-02T11:43:58Z</time>
      </trkpt>
      <trkpt lat="42.40944" lon="0.10822">
        <ele>564.9</ele>
        <time>2017-07-02T11:43:59Z</time>
      </trkpt>
      <trkpt lat="42.40946" lon="0.10827">
        <ele>565.2</ele>
        <time>2017-07-02T11:44:00Z</time>
      </trkpt>
      <trkpt lat="42.40948" lon="0.10832">
        <ele>565.3</ele>
        <time>2017-07-02T11:44:01Z</time>
      </trkpt>
      <trkpt lat="42.4095" lon="0.10836">
        <ele>565.4</ele>
        <time>2017-07-02T11:44:02Z</time>
      </trkpt>
      <trkpt lat="42.40951" lon="0.1084">
        <ele>565.5</ele>
        <time>2017-07-02T11:44:03Z</time>
      </trkpt>
      <trkpt lat="42.40953" lon="0.10845">
        <ele>565.6</ele>
        <time>2017-07-02T11:44:04Z</time>
      </trkpt>
      <trkpt lat="42.40956" lon="0.10849">
        <ele>565.6</ele>
        <time>2017-07-02T11:44:05Z</time>
      </trkpt>
      <trkpt lat="42.40958" lon="0.10854">
        <ele>565.6</ele>
        <time>2017-07-02T11:44:06Z</time>
      </trkpt>
      <trkpt lat="42.40962" lon="0.10858">
        <ele>565.6</ele>
        <time>2017-07-02T11:44:07Z</time>
      </trkpt>
      <trkpt lat="42.40967" lon="0.10861">
        <ele>565.7</ele>
        <time>2017-07-02T11:44:08Z</time>
      </trkpt>
      <trkpt lat="42.40972" lon="0.10864">
        <ele>565.7</ele>
        <time>2017-07-02T11:44:09Z</time>
      </trkpt>
      <trkpt lat="42.40977" lon="0.10866">
        <ele>565.7</ele>
        <time>2017-07-02T11:44:10Z</time>
      </trkpt>
      <trkpt lat="42.40983" lon="0.10868">
        <ele>565.7</ele>
        <time>2017-07-02T11:44:11Z</time>
      </trkpt>
      <trkpt lat="42.40988" lon="0.10871">
        <ele>565.6</ele>
        <time>2017-07-02T11:44:12Z</time>
      </trkpt>
      <trkpt lat="42.40994" lon="0.10874">
        <ele>565.4</ele>
        <time>2017-07-02T11:44:13Z</time>
      </trkpt>
      <trkpt lat="42.40999" lon="0.10877">
        <ele>565.2</ele>
        <time>2017-07-02T11:44:14Z</time>
      </trkpt>
      <trkpt lat="42.41003" lon="0.10881">
        <ele>565.1</ele>
        <time>2017-07-02T11:44:15Z</time>
      </trkpt>
      <trkpt lat="42.41009" lon="0.10885">
        <ele>564.7</ele>
        <time>2017-07-02T11:44:16Z</time>
      </trkpt>
      <trkpt lat="42.41014" lon="0.1089">
        <ele>564.4</ele>
        <time>2017-07-02T11:44:17Z</time>
      </trkpt>
      <trkpt lat="42.4102" lon="0.10894">
        <ele>564.1</ele>
        <time>2017-07-02T11:44:18Z</time>
      </trkpt>
      <trkpt lat="42.41026" lon="0.10897">
        <ele>564</ele>
        <time>2017-07-02T11:44:19Z</time>
      </trkpt>
      <trkpt lat="42.41032" lon="0.10899">
        <ele>563.9</ele>
        <time>2017-07-02T11:44:20Z</time>
      </trkpt>
      <trkpt lat="42.41038" lon="0.109">
        <ele>563.8</ele>
        <time>2017-07-02T11:44:21Z</time>
      </trkpt>
      <trkpt lat="42.41047" lon="0.10898">
        <ele>563.7</ele>
        <time>2017-07-02T11:44:22Z</time>
      </trkpt>
      <trkpt lat="42.41053" lon="0.10898">
        <ele>563.7</ele>
        <time>2017-07-02T11:44:23Z</time>
      </trkpt>
      <trkpt lat="42.41057" lon="0.10898">
        <ele>563.7</ele>
        <time>2017-07-02T11:44:24Z</time>
      </trkpt>
      <trkpt lat="42.41062" lon="0.10899">
        <ele>563.7</ele>
        <time>2017-07-02T11:44:25Z</time>
      </trkpt>
      <trkpt lat="42.41069" lon="0.109">
        <ele>563.7</ele>
        <time>2017-07-02T11:44:26Z</time>
      </trkpt>
      <trkpt lat="42.41075" lon="0.10901">
        <ele>563.7</ele>
        <time>2017-07-02T11:44:27Z</time>
      </trkpt>
      <trkpt lat="42.41081" lon="0.10899">
        <ele>563.8</ele>
        <time>2017-07-02T11:44:28Z</time>
      </trkpt>
      <trkpt lat="42.41087" lon="0.10898">
        <ele>563.8</ele>
        <time>2017-07-02T11:44:29Z</time>
      </trkpt>
      <trkpt lat="42.41093" lon="0.10897">
        <ele>563.8</ele>
        <time>2017-07-02T11:44:30Z</time>
      </trkpt>
      <trkpt lat="42.41097" lon="0.10895">
        <ele>563.8</ele>
        <time>2017-07-02T11:44:31Z</time>
      </trkpt>
      <trkpt lat="42.41102" lon="0.10891">
        <ele>563.8</ele>
        <time>2017-07-02T11:44:32Z</time>
      </trkpt>
      <trkpt lat="42.41107" lon="0.10887">
        <ele>563.8</ele>
        <time>2017-07-02T11:44:33Z</time>
      </trkpt>
      <trkpt lat="42.4111" lon="0.10885">
        <ele>563.8</ele>
        <time>2017-07-02T11:44:34Z</time>
      </trkpt>
      <trkpt lat="42.41116" lon="0.10885">
        <ele>563.7</ele>
        <time>2017-07-02T11:44:35Z</time>
      </trkpt>
      <trkpt lat="42.41122" lon="0.10885">
        <ele>563.7</ele>
        <time>2017-07-02T11:44:36Z</time>
      </trkpt>
      <trkpt lat="42.41126" lon="0.10883">
        <ele>563.6</ele>
        <time>2017-07-02T11:44:37Z</time>
      </trkpt>
      <trkpt lat="42.41131" lon="0.10883">
        <ele>563.5</ele>
        <time>2017-07-02T11:44:38Z</time>
      </trkpt>
      <trkpt lat="42.41136" lon="0.10883">
        <ele>563.4</ele>
        <time>2017-07-02T11:44:39Z</time>
      </trkpt>
      <trkpt lat="42.41142" lon="0.1088">
        <ele>563.2</ele>
        <time>2017-07-02T11:44:40Z</time>
      </trkpt>
      <trkpt lat="42.41148" lon="0.10879">
        <ele>563</ele>
        <time>2017-07-02T11:44:41Z</time>
      </trkpt>
      <trkpt lat="42.41153" lon="0.10877">
        <ele>563</ele>
        <time>2017-07-02T11:44:42Z</time>
      </trkpt>
      <trkpt lat="42.41158" lon="0.10874">
        <ele>563.1</ele>
        <time>2017-07-02T11:44:43Z</time>
      </trkpt>
      <trkpt lat="42.41161" lon="0.1087">
        <ele>563.3</ele>
        <time>2017-07-02T11:44:44Z</time>
      </trkpt>
      <trkpt lat="42.41164" lon="0.10867">
        <ele>563.9</ele>
        <time>2017-07-02T11:44:45Z</time>
      </trkpt>
      <trkpt lat="42.41167" lon="0.10864">
        <ele>564.8</ele>
        <time>2017-07-02T11:44:46Z</time>
      </trkpt>
      <trkpt lat="42.4117" lon="0.10863">
        <ele>565.5</ele>
        <time>2017-07-02T11:44:58Z</time>
      </trkpt>
      <trkpt lat="42.41173" lon="0.10864">
        <ele>566</ele>
        <time>2017-07-02T11:45:03Z</time>
      </trkpt>
      <trkpt lat="42.41175" lon="0.10866">
        <ele>566.2</ele>
        <time>2017-07-02T11:45:07Z</time>
      </trkpt>
      <trkpt lat="42.41178" lon="0.10869">
        <ele>566.4</ele>
        <time>2017-07-02T11:45:10Z</time>
      </trkpt>
      <trkpt lat="42.41181" lon="0.10871">
        <ele>566.5</ele>
        <time>2017-07-02T11:45:14Z</time>
      </trkpt>
      <trkpt lat="42.41184" lon="0.10875">
        <ele>566.5</ele>
        <time>2017-07-02T11:45:17Z</time>
      </trkpt>
      <trkpt lat="42.41186" lon="0.10878">
        <ele>566.6</ele>
        <time>2017-07-02T11:45:19Z</time>
      </trkpt>
      <trkpt lat="42.41191" lon="0.10881">
        <ele>566.7</ele>
        <time>2017-07-02T11:45:21Z</time>
      </trkpt>
      <trkpt lat="42.41194" lon="0.10883">
        <ele>566.7</ele>
        <time>2017-07-02T11:45:22Z</time>
      </trkpt>
      <trkpt lat="42.41198" lon="0.10884">
        <ele>566.7</ele>
        <time>2017-07-02T11:45:23Z</time>
      </trkpt>
      <trkpt lat="42.41202" lon="0.10886">
        <ele>566.8</ele>
        <time>2017-07-02T11:45:24Z</time>
      </trkpt>
      <trkpt lat="42.41206" lon="0.10888">
        <ele>566.8</ele>
        <time>2017-07-02T11:45:25Z</time>
      </trkpt>
      <trkpt lat="42.41209" lon="0.1089">
        <ele>566.8</ele>
        <time>2017-07-02T11:45:26Z</time>
      </trkpt>
      <trkpt lat="42.41213" lon="0.10893">
        <ele>566.8</ele>
        <time>2017-07-02T11:45:27Z</time>
      </trkpt>
      <trkpt lat="42.41217" lon="0.10894">
        <ele>566.8</ele>
        <time>2017-07-02T11:45:28Z</time>
      </trkpt>
      <trkpt lat="42.4122" lon="0.10895">
        <ele>566.8</ele>
        <time>2017-07-02T11:45:29Z</time>
      </trkpt>
      <trkpt lat="42.41223" lon="0.10896">
        <ele>566.8</ele>
        <time>2017-07-02T11:45:30Z</time>
      </trkpt>
      <trkpt lat="42.41226" lon="0.10897">
        <ele>566.8</ele>
        <time>2017-07-02T11:45:31Z</time>
      </trkpt>
      <trkpt lat="42.41229" lon="0.10898">
        <ele>566.8</ele>
        <time>2017-07-02T11:45:32Z</time>
      </trkpt>
      <trkpt lat="42.41232" lon="0.109">
        <ele>566.8</ele>
        <time>2017-07-02T11:45:33Z</time>
      </trkpt>
      <trkpt lat="42.41236" lon="0.10903">
        <ele>566.8</ele>
        <time>2017-07-02T11:45:35Z</time>
      </trkpt>
      <trkpt lat="42.41239" lon="0.10906">
        <ele>566.8</ele>
        <time>2017-07-02T11:45:36Z</time>
      </trkpt>
      <trkpt lat="42.41242" lon="0.10908">
        <ele>566.7</ele>
        <time>2017-07-02T11:45:37Z</time>
      </trkpt>
      <trkpt lat="42.41245" lon="0.1091">
        <ele>566.7</ele>
        <time>2017-07-02T11:45:38Z</time>
      </trkpt>
      <trkpt lat="42.41248" lon="0.10911">
        <ele>566.6</ele>
        <time>2017-07-02T11:45:39Z</time>
      </trkpt>
      <trkpt lat="42.41254" lon="0.10911">
        <ele>566.4</ele>
        <time>2017-07-02T11:45:41Z</time>
      </trkpt>
      <trkpt lat="42.41257" lon="0.10912">
        <ele>566.4</ele>
        <time>2017-07-02T11:45:42Z</time>
      </trkpt>
      <trkpt lat="42.41261" lon="0.10914">
        <ele>566.1</ele>
        <time>2017-07-02T11:45:44Z</time>
      </trkpt>
      <trkpt lat="42.41266" lon="0.10916">
        <ele>565.9</ele>
        <time>2017-07-02T11:45:46Z</time>
      </trkpt>
      <trkpt lat="42.41269" lon="0.10915">
        <ele>565.7</ele>
        <time>2017-07-02T11:45:47Z</time>
      </trkpt>
      <trkpt lat="42.41271" lon="0.10915">
        <ele>565.6</ele>
        <time>2017-07-02T11:45:48Z</time>
      </trkpt>
      <trkpt lat="42.41275" lon="0.10918">
        <ele>565.4</ele>
        <time>2017-07-02T11:45:50Z</time>
      </trkpt>
      <trkpt lat="42.41275" lon="0.10923">
        <ele>565.4</ele>
        <time>2017-07-02T11:45:51Z</time>
      </trkpt>
      <trkpt lat="42.41276" lon="0.10929">
        <ele>565.3</ele>
        <time>2017-07-02T11:45:53Z</time>
      </trkpt>
      <trkpt lat="42.41278" lon="0.10932">
        <ele>565.3</ele>
        <time>2017-07-02T11:45:55Z</time>
      </trkpt>
      <trkpt lat="42.41282" lon="0.10934">
        <ele>565.2</ele>
        <time>2017-07-02T11:45:57Z</time>
      </trkpt>
      <trkpt lat="42.41285" lon="0.10935">
        <ele>565.2</ele>
        <time>2017-07-02T11:45:59Z</time>
      </trkpt>
      <trkpt lat="42.41288" lon="0.10936">
        <ele>565.2</ele>
        <time>2017-07-02T11:46:01Z</time>
      </trkpt>
      <trkpt lat="42.41292" lon="0.10941">
        <ele>565.1</ele>
        <time>2017-07-02T11:46:03Z</time>
      </trkpt>
      <trkpt lat="42.41295" lon="0.10945">
        <ele>565.1</ele>
        <time>2017-07-02T11:46:04Z</time>
      </trkpt>
      <trkpt lat="42.41298" lon="0.1095">
        <ele>565</ele>
        <time>2017-07-02T11:46:05Z</time>
      </trkpt>
      <trkpt lat="42.41301" lon="0.10953">
        <ele>564.9</ele>
        <time>2017-07-02T11:46:06Z</time>
      </trkpt>
      <trkpt lat="42.41304" lon="0.10956">
        <ele>564.8</ele>
        <time>2017-07-02T11:46:07Z</time>
      </trkpt>
      <trkpt lat="42.41307" lon="0.10959">
        <ele>564.7</ele>
        <time>2017-07-02T11:46:09Z</time>
      </trkpt>
      <trkpt lat="42.41309" lon="0.10962">
        <ele>564.5</ele>
        <time>2017-07-02T11:46:10Z</time>
      </trkpt>
      <trkpt lat="42.41311" lon="0.10966">
        <ele>564.3</ele>
        <time>2017-07-02T11:46:11Z</time>
      </trkpt>
      <trkpt lat="42.41313" lon="0.10969">
        <ele>564.1</ele>
        <time>2017-07-02T11:46:12Z</time>
      </trkpt>
      <trkpt lat="42.41315" lon="0.10972">
        <ele>564</ele>
        <time>2017-07-02T11:46:13Z</time>
      </trkpt>
      <trkpt lat="42.41318" lon="0.10977">
        <ele>563.7</ele>
        <time>2017-07-02T11:46:15Z</time>
      </trkpt>
      <trkpt lat="42.4132" lon="0.1098">
        <ele>563.5</ele>
        <time>2017-07-02T11:46:17Z</time>
      </trkpt>
      <trkpt lat="42.41324" lon="0.10986">
        <ele>563.3</ele>
        <time>2017-07-02T11:46:19Z</time>
      </trkpt>
      <trkpt lat="42.41326" lon="0.1099">
        <ele>563.2</ele>
        <time>2017-07-02T11:46:20Z</time>
      </trkpt>
      <trkpt lat="42.41329" lon="0.10994">
        <ele>563.1</ele>
        <time>2017-07-02T11:46:21Z</time>
      </trkpt>
      <trkpt lat="42.41331" lon="0.10997">
        <ele>562.9</ele>
        <time>2017-07-02T11:46:22Z</time>
      </trkpt>
      <trkpt lat="42.41333" lon="0.11">
        <ele>562.8</ele>
        <time>2017-07-02T11:46:23Z</time>
      </trkpt>
      <trkpt lat="42.41336" lon="0.11003">
        <ele>562.7</ele>
        <time>2017-07-02T11:46:24Z</time>
      </trkpt>
      <trkpt lat="42.41338" lon="0.11006">
        <ele>562.5</ele>
        <time>2017-07-02T11:46:25Z</time>
      </trkpt>
      <trkpt lat="42.4134" lon="0.11009">
        <ele>562.3</ele>
        <time>2017-07-02T11:46:26Z</time>
      </trkpt>
      <trkpt lat="42.41342" lon="0.11014">
        <ele>562</ele>
        <time>2017-07-02T11:46:27Z</time>
      </trkpt>
      <trkpt lat="42.41343" lon="0.11019">
        <ele>561.7</ele>
        <time>2017-07-02T11:46:28Z</time>
      </trkpt>
      <trkpt lat="42.41345" lon="0.11024">
        <ele>561.3</ele>
        <time>2017-07-02T11:46:29Z</time>
      </trkpt>
      <trkpt lat="42.41347" lon="0.11029">
        <ele>560.7</ele>
        <time>2017-07-02T11:46:30Z</time>
      </trkpt>
      <trkpt lat="42.41349" lon="0.11033">
        <ele>560.6</ele>
        <time>2017-07-02T11:46:31Z</time>
      </trkpt>
      <trkpt lat="42.41352" lon="0.11036">
        <ele>560.4</ele>
        <time>2017-07-02T11:46:32Z</time>
      </trkpt>
      <trkpt lat="42.41356" lon="0.11037">
        <ele>560.3</ele>
        <time>2017-07-02T11:46:33Z</time>
      </trkpt>
      <trkpt lat="42.41359" lon="0.11038">
        <ele>560.2</ele>
        <time>2017-07-02T11:46:34Z</time>
      </trkpt>
      <trkpt lat="42.41363" lon="0.1104">
        <ele>560.1</ele>
        <time>2017-07-02T11:46:35Z</time>
      </trkpt>
      <trkpt lat="42.41366" lon="0.11042">
        <ele>560</ele>
        <time>2017-07-02T11:46:36Z</time>
      </trkpt>
      <trkpt lat="42.41369" lon="0.11044">
        <ele>559.9</ele>
        <time>2017-07-02T11:46:37Z</time>
      </trkpt>
      <trkpt lat="42.41373" lon="0.11047">
        <ele>559.8</ele>
        <time>2017-07-02T11:46:38Z</time>
      </trkpt>
      <trkpt lat="42.41376" lon="0.11049">
        <ele>559.6</ele>
        <time>2017-07-02T11:46:39Z</time>
      </trkpt>
      <trkpt lat="42.41379" lon="0.11053">
        <ele>559.5</ele>
        <time>2017-07-02T11:46:40Z</time>
      </trkpt>
      <trkpt lat="42.41382" lon="0.11056">
        <ele>559.4</ele>
        <time>2017-07-02T11:46:41Z</time>
      </trkpt>
      <trkpt lat="42.41385" lon="0.1106">
        <ele>559.2</ele>
        <time>2017-07-02T11:46:42Z</time>
      </trkpt>
      <trkpt lat="42.41387" lon="0.11065">
        <ele>559.1</ele>
        <time>2017-07-02T11:46:43Z</time>
      </trkpt>
      <trkpt lat="42.4139" lon="0.11069">
        <ele>559</ele>
        <time>2017-07-02T11:46:44Z</time>
      </trkpt>
      <trkpt lat="42.41392" lon="0.11073">
        <ele>558.9</ele>
        <time>2017-07-02T11:46:45Z</time>
      </trkpt>
      <trkpt lat="42.41394" lon="0.11078">
        <ele>558.9</ele>
        <time>2017-07-02T11:46:46Z</time>
      </trkpt>
      <trkpt lat="42.41396" lon="0.11082">
        <ele>558.8</ele>
        <time>2017-07-02T11:46:47Z</time>
      </trkpt>
      <trkpt lat="42.41398" lon="0.11086">
        <ele>558.7</ele>
        <time>2017-07-02T11:46:48Z</time>
      </trkpt>
      <trkpt lat="42.414" lon="0.1109">
        <ele>558.6</ele>
        <time>2017-07-02T11:46:49Z</time>
      </trkpt>
      <trkpt lat="42.41402" lon="0.11093">
        <ele>558.5</ele>
        <time>2017-07-02T11:46:50Z</time>
      </trkpt>
      <trkpt lat="42.41404" lon="0.11096">
        <ele>558.4</ele>
        <time>2017-07-02T11:46:51Z</time>
      </trkpt>
      <trkpt lat="42.41407" lon="0.11101">
        <ele>558.3</ele>
        <time>2017-07-02T11:46:53Z</time>
      </trkpt>
      <trkpt lat="42.41409" lon="0.11105">
        <ele>558.3</ele>
        <time>2017-07-02T11:46:55Z</time>
      </trkpt>
      <trkpt lat="42.41412" lon="0.1111">
        <ele>558.3</ele>
        <time>2017-07-02T11:46:57Z</time>
      </trkpt>
      <trkpt lat="42.41413" lon="0.11115">
        <ele>558.4</ele>
        <time>2017-07-02T11:46:59Z</time>
      </trkpt>
      <trkpt lat="42.41414" lon="0.1112">
        <ele>558.4</ele>
        <time>2017-07-02T11:47:01Z</time>
      </trkpt>
      <trkpt lat="42.41415" lon="0.11125">
        <ele>558.5</ele>
        <time>2017-07-02T11:47:03Z</time>
      </trkpt>
      <trkpt lat="42.41415" lon="0.11129">
        <ele>558.5</ele>
        <time>2017-07-02T11:47:05Z</time>
      </trkpt>
      <trkpt lat="42.41414" lon="0.11134">
        <ele>558.6</ele>
        <time>2017-07-02T11:47:07Z</time>
      </trkpt>
      <trkpt lat="42.41413" lon="0.11139">
        <ele>558.5</ele>
        <time>2017-07-02T11:47:09Z</time>
      </trkpt>
      <trkpt lat="42.41412" lon="0.11144">
        <ele>558.4</ele>
        <time>2017-07-02T11:47:11Z</time>
      </trkpt>
      <trkpt lat="42.41411" lon="0.11149">
        <ele>558.2</ele>
        <time>2017-07-02T11:47:13Z</time>
      </trkpt>
      <trkpt lat="42.41409" lon="0.11155">
        <ele>558.1</ele>
        <time>2017-07-02T11:47:15Z</time>
      </trkpt>
      <trkpt lat="42.41407" lon="0.11161">
        <ele>558</ele>
        <time>2017-07-02T11:47:17Z</time>
      </trkpt>
      <trkpt lat="42.41406" lon="0.11167">
        <ele>557.9</ele>
        <time>2017-07-02T11:47:19Z</time>
      </trkpt>
      <trkpt lat="42.41406" lon="0.11172">
        <ele>557.8</ele>
        <time>2017-07-02T11:47:21Z</time>
      </trkpt>
      <trkpt lat="42.41407" lon="0.11177">
        <ele>557.8</ele>
        <time>2017-07-02T11:47:23Z</time>
      </trkpt>
      <trkpt lat="42.41408" lon="0.11181">
        <ele>557.9</ele>
        <time>2017-07-02T11:47:25Z</time>
      </trkpt>
      <trkpt lat="42.4141" lon="0.11179">
        <ele>558</ele>
        <time>2017-07-02T11:49:40Z</time>
      </trkpt>
      <trkpt lat="42.41411" lon="0.11175">
        <ele>558.3</ele>
        <time>2017-07-02T11:49:42Z</time>
      </trkpt>
      <trkpt lat="42.41412" lon="0.1117">
        <ele>559.2</ele>
        <time>2017-07-02T11:49:44Z</time>
      </trkpt>
      <trkpt lat="42.41413" lon="0.11164">
        <ele>560.4</ele>
        <time>2017-07-02T11:49:46Z</time>
      </trkpt>
      <trkpt lat="42.41413" lon="0.1116">
        <ele>561.2</ele>
        <time>2017-07-02T11:49:48Z</time>
      </trkpt>
      <trkpt lat="42.41414" lon="0.11157">
        <ele>562.1</ele>
        <time>2017-07-02T11:49:50Z</time>
      </trkpt>
      <trkpt lat="42.41417" lon="0.11153">
        <ele>563</ele>
        <time>2017-07-02T11:49:52Z</time>
      </trkpt>
      <trkpt lat="42.41419" lon="0.1115">
        <ele>563.9</ele>
        <time>2017-07-02T11:49:54Z</time>
      </trkpt>
      <trkpt lat="42.41422" lon="0.11147">
        <ele>564.7</ele>
        <time>2017-07-02T11:49:56Z</time>
      </trkpt>
      <trkpt lat="42.41424" lon="0.11145">
        <ele>565.4</ele>
        <time>2017-07-02T11:49:58Z</time>
      </trkpt>
      <trkpt lat="42.41426" lon="0.1114">
        <ele>566.3</ele>
        <time>2017-07-02T11:50:01Z</time>
      </trkpt>
      <trkpt lat="42.41428" lon="0.11137">
        <ele>567</ele>
        <time>2017-07-02T11:50:04Z</time>
      </trkpt>
      <trkpt lat="42.41429" lon="0.11133">
        <ele>567.9</ele>
        <time>2017-07-02T11:50:07Z</time>
      </trkpt>
      <trkpt lat="42.41431" lon="0.11128">
        <ele>568.8</ele>
        <time>2017-07-02T11:50:10Z</time>
      </trkpt>
      <trkpt lat="42.41432" lon="0.11125">
        <ele>569.4</ele>
        <time>2017-07-02T11:50:12Z</time>
      </trkpt>
      <trkpt lat="42.41432" lon="0.11121">
        <ele>570.2</ele>
        <time>2017-07-02T11:50:14Z</time>
      </trkpt>
      <trkpt lat="42.41433" lon="0.11117">
        <ele>571</ele>
        <time>2017-07-02T11:50:16Z</time>
      </trkpt>
      <trkpt lat="42.41435" lon="0.11112">
        <ele>572</ele>
        <time>2017-07-02T11:50:19Z</time>
      </trkpt>
      <trkpt lat="42.41436" lon="0.11108">
        <ele>573</ele>
        <time>2017-07-02T11:50:22Z</time>
      </trkpt>
      <trkpt lat="42.41438" lon="0.11104">
        <ele>574</ele>
        <time>2017-07-02T11:50:25Z</time>
      </trkpt>
      <trkpt lat="42.4144" lon="0.11101">
        <ele>574.7</ele>
        <time>2017-07-02T11:50:27Z</time>
      </trkpt>
      <trkpt lat="42.41443" lon="0.11097">
        <ele>575.7</ele>
        <time>2017-07-02T11:50:30Z</time>
      </trkpt>
      <trkpt lat="42.41445" lon="0.11094">
        <ele>576.7</ele>
        <time>2017-07-02T11:50:33Z</time>
      </trkpt>
      <trkpt lat="42.41448" lon="0.1109">
        <ele>577.7</ele>
        <time>2017-07-02T11:50:36Z</time>
      </trkpt>
      <trkpt lat="42.41451" lon="0.11087">
        <ele>578.7</ele>
        <time>2017-07-02T11:50:39Z</time>
      </trkpt>
      <trkpt lat="42.41454" lon="0.11085">
        <ele>579.5</ele>
        <time>2017-07-02T11:50:43Z</time>
      </trkpt>
      <trkpt lat="42.41456" lon="0.11082">
        <ele>580.3</ele>
        <time>2017-07-02T11:50:47Z</time>
      </trkpt>
      <trkpt lat="42.41458" lon="0.11079">
        <ele>581.1</ele>
        <time>2017-07-02T11:50:50Z</time>
      </trkpt>
      <trkpt lat="42.4146" lon="0.11077">
        <ele>581.8</ele>
        <time>2017-07-02T11:50:53Z</time>
      </trkpt>
      <trkpt lat="42.41462" lon="0.11074">
        <ele>582.4</ele>
        <time>2017-07-02T11:50:56Z</time>
      </trkpt>
      <trkpt lat="42.41465" lon="0.11072">
        <ele>583.2</ele>
        <time>2017-07-02T11:50:59Z</time>
      </trkpt>
      <trkpt lat="42.41467" lon="0.11069">
        <ele>584</ele>
        <time>2017-07-02T11:51:02Z</time>
      </trkpt>
      <trkpt lat="42.4147" lon="0.11066">
        <ele>584.7</ele>
        <time>2017-07-02T11:51:05Z</time>
      </trkpt>
      <trkpt lat="42.41472" lon="0.11062">
        <ele>585.6</ele>
        <time>2017-07-02T11:51:08Z</time>
      </trkpt>
      <trkpt lat="42.41474" lon="0.11058">
        <ele>586.5</ele>
        <time>2017-07-02T11:51:11Z</time>
      </trkpt>
      <trkpt lat="42.41476" lon="0.11054">
        <ele>587.3</ele>
        <time>2017-07-02T11:51:14Z</time>
      </trkpt>
      <trkpt lat="42.41478" lon="0.1105">
        <ele>588.1</ele>
        <time>2017-07-02T11:51:17Z</time>
      </trkpt>
      <trkpt lat="42.41481" lon="0.11048">
        <ele>588.9</ele>
        <time>2017-07-02T11:51:20Z</time>
      </trkpt>
      <trkpt lat="42.41484" lon="0.11046">
        <ele>589.7</ele>
        <time>2017-07-02T11:51:24Z</time>
      </trkpt>
      <trkpt lat="42.41485" lon="0.11042">
        <ele>590.4</ele>
        <time>2017-07-02T11:51:27Z</time>
      </trkpt>
      <trkpt lat="42.41486" lon="0.11038">
        <ele>591</ele>
        <time>2017-07-02T11:51:30Z</time>
      </trkpt>
      <trkpt lat="42.41488" lon="0.11035">
        <ele>591.6</ele>
        <time>2017-07-02T11:51:33Z</time>
      </trkpt>
      <trkpt lat="42.41489" lon="0.11029">
        <ele>592.3</ele>
        <time>2017-07-02T11:51:36Z</time>
      </trkpt>
      <trkpt lat="42.41489" lon="0.11025">
        <ele>592.8</ele>
        <time>2017-07-02T11:51:38Z</time>
      </trkpt>
      <trkpt lat="42.41489" lon="0.11021">
        <ele>593.4</ele>
        <time>2017-07-02T11:51:41Z</time>
      </trkpt>
      <trkpt lat="42.41487" lon="0.11016">
        <ele>594.1</ele>
        <time>2017-07-02T11:51:44Z</time>
      </trkpt>
      <trkpt lat="42.41487" lon="0.11011">
        <ele>594.6</ele>
        <time>2017-07-02T11:51:47Z</time>
      </trkpt>
      <trkpt lat="42.41485" lon="0.11007">
        <ele>595.2</ele>
        <time>2017-07-02T11:51:50Z</time>
      </trkpt>
      <trkpt lat="42.41484" lon="0.11003">
        <ele>595.8</ele>
        <time>2017-07-02T11:51:53Z</time>
      </trkpt>
      <trkpt lat="42.41483" lon="0.10999">
        <ele>596.2</ele>
        <time>2017-07-02T11:51:56Z</time>
      </trkpt>
      <trkpt lat="42.41482" lon="0.10995">
        <ele>596.6</ele>
        <time>2017-07-02T11:51:59Z</time>
      </trkpt>
      <trkpt lat="42.4148" lon="0.10992">
        <ele>596.9</ele>
        <time>2017-07-02T11:52:01Z</time>
      </trkpt>
      <trkpt lat="42.41478" lon="0.10987">
        <ele>597.5</ele>
        <time>2017-07-02T11:52:04Z</time>
      </trkpt>
      <trkpt lat="42.41475" lon="0.10983">
        <ele>598.4</ele>
        <time>2017-07-02T11:52:07Z</time>
      </trkpt>
      <trkpt lat="42.41473" lon="0.10981">
        <ele>599.1</ele>
        <time>2017-07-02T11:52:09Z</time>
      </trkpt>
      <trkpt lat="42.41471" lon="0.10979">
        <ele>600</ele>
        <time>2017-07-02T11:52:11Z</time>
      </trkpt>
      <trkpt lat="42.41468" lon="0.10976">
        <ele>601</ele>
        <time>2017-07-02T11:52:14Z</time>
      </trkpt>
      <trkpt lat="42.41466" lon="0.10973">
        <ele>601.6</ele>
        <time>2017-07-02T11:52:16Z</time>
      </trkpt>
      <trkpt lat="42.41464" lon="0.10968">
        <ele>602.3</ele>
        <time>2017-07-02T11:52:19Z</time>
      </trkpt>
      <trkpt lat="42.41463" lon="0.10965">
        <ele>602.8</ele>
        <time>2017-07-02T11:52:21Z</time>
      </trkpt>
      <trkpt lat="42.41462" lon="0.1096">
        <ele>603.4</ele>
        <time>2017-07-02T11:52:24Z</time>
      </trkpt>
      <trkpt lat="42.41461" lon="0.10956">
        <ele>603.9</ele>
        <time>2017-07-02T11:52:27Z</time>
      </trkpt>
      <trkpt lat="42.41459" lon="0.10951">
        <ele>604.5</ele>
        <time>2017-07-02T11:52:30Z</time>
      </trkpt>
      <trkpt lat="42.41458" lon="0.10947">
        <ele>604.9</ele>
        <time>2017-07-02T11:52:32Z</time>
      </trkpt>
      <trkpt lat="42.41457" lon="0.10942">
        <ele>605.6</ele>
        <time>2017-07-02T11:52:35Z</time>
      </trkpt>
      <trkpt lat="42.41455" lon="0.10937">
        <ele>606.4</ele>
        <time>2017-07-02T11:52:38Z</time>
      </trkpt>
      <trkpt lat="42.41455" lon="0.10933">
        <ele>607</ele>
        <time>2017-07-02T11:52:40Z</time>
      </trkpt>
      <trkpt lat="42.41454" lon="0.1093">
        <ele>607.6</ele>
        <time>2017-07-02T11:52:42Z</time>
      </trkpt>
      <trkpt lat="42.41454" lon="0.10925">
        <ele>608.3</ele>
        <time>2017-07-02T11:52:45Z</time>
      </trkpt>
      <trkpt lat="42.41453" lon="0.10921">
        <ele>608.9</ele>
        <time>2017-07-02T11:52:48Z</time>
      </trkpt>
      <trkpt lat="42.41453" lon="0.10917">
        <ele>609.6</ele>
        <time>2017-07-02T11:52:51Z</time>
      </trkpt>
      <trkpt lat="42.41452" lon="0.10912">
        <ele>610.5</ele>
        <time>2017-07-02T11:52:54Z</time>
      </trkpt>
      <trkpt lat="42.41452" lon="0.10908">
        <ele>611.3</ele>
        <time>2017-07-02T11:52:57Z</time>
      </trkpt>
      <trkpt lat="42.41453" lon="0.10904">
        <ele>612</ele>
        <time>2017-07-02T11:53:00Z</time>
      </trkpt>
      <trkpt lat="42.41455" lon="0.10899">
        <ele>613.6</ele>
        <time>2017-07-02T11:53:03Z</time>
      </trkpt>
      <trkpt lat="42.41458" lon="0.10896">
        <ele>614.9</ele>
        <time>2017-07-02T11:53:05Z</time>
      </trkpt>
      <trkpt lat="42.41458" lon="0.10891">
        <ele>615.8</ele>
        <time>2017-07-02T11:53:07Z</time>
      </trkpt>
      <trkpt lat="42.41458" lon="0.10888">
        <ele>616.6</ele>
        <time>2017-07-02T11:53:09Z</time>
      </trkpt>
      <trkpt lat="42.41459" lon="0.10884">
        <ele>617.3</ele>
        <time>2017-07-02T11:53:12Z</time>
      </trkpt>
      <trkpt lat="42.41461" lon="0.10881">
        <ele>617.9</ele>
        <time>2017-07-02T11:53:15Z</time>
      </trkpt>
      <trkpt lat="42.41465" lon="0.10878">
        <ele>618.4</ele>
        <time>2017-07-02T11:53:18Z</time>
      </trkpt>
      <trkpt lat="42.41467" lon="0.10876">
        <ele>618.7</ele>
        <time>2017-07-02T11:53:20Z</time>
      </trkpt>
      <trkpt lat="42.4147" lon="0.10874">
        <ele>618.9</ele>
        <time>2017-07-02T11:53:22Z</time>
      </trkpt>
      <trkpt lat="42.41472" lon="0.10872">
        <ele>619.1</ele>
        <time>2017-07-02T11:53:24Z</time>
      </trkpt>
      <trkpt lat="42.41475" lon="0.1087">
        <ele>619.3</ele>
        <time>2017-07-02T11:53:26Z</time>
      </trkpt>
      <trkpt lat="42.41477" lon="0.10868">
        <ele>619.6</ele>
        <time>2017-07-02T11:53:28Z</time>
      </trkpt>
      <trkpt lat="42.41479" lon="0.10865">
        <ele>619.8</ele>
        <time>2017-07-02T11:53:30Z</time>
      </trkpt>
      <trkpt lat="42.41481" lon="0.10862">
        <ele>620</ele>
        <time>2017-07-02T11:53:32Z</time>
      </trkpt>
      <trkpt lat="42.41483" lon="0.10859">
        <ele>620.2</ele>
        <time>2017-07-02T11:53:34Z</time>
      </trkpt>
      <trkpt lat="42.41485" lon="0.10857">
        <ele>620.4</ele>
        <time>2017-07-02T11:53:36Z</time>
      </trkpt>
      <trkpt lat="42.41488" lon="0.10854">
        <ele>620.5</ele>
        <time>2017-07-02T11:53:39Z</time>
      </trkpt>
      <trkpt lat="42.41489" lon="0.10849">
        <ele>620.6</ele>
        <time>2017-07-02T11:53:42Z</time>
      </trkpt>
      <trkpt lat="42.4149" lon="0.10844">
        <ele>622.6</ele>
        <time>2017-07-02T11:53:45Z</time>
      </trkpt>
      <trkpt lat="42.41487" lon="0.10841">
        <ele>623</ele>
        <time>2017-07-02T11:53:48Z</time>
      </trkpt>
      <trkpt lat="42.41484" lon="0.10841">
        <ele>623.2</ele>
        <time>2017-07-02T11:53:49Z</time>
      </trkpt>
      <trkpt lat="42.41481" lon="0.10842">
        <ele>623.5</ele>
        <time>2017-07-02T11:53:50Z</time>
      </trkpt>
      <trkpt lat="42.41478" lon="0.10843">
        <ele>623.8</ele>
        <time>2017-07-02T11:53:51Z</time>
      </trkpt>
      <trkpt lat="42.41473" lon="0.10844">
        <ele>624.2</ele>
        <time>2017-07-02T11:53:53Z</time>
      </trkpt>
      <trkpt lat="42.41469" lon="0.10845">
        <ele>624.6</ele>
        <time>2017-07-02T11:53:55Z</time>
      </trkpt>
      <trkpt lat="42.41465" lon="0.10846">
        <ele>624.9</ele>
        <time>2017-07-02T11:53:57Z</time>
      </trkpt>
      <trkpt lat="42.41462" lon="0.10846">
        <ele>625.2</ele>
        <time>2017-07-02T11:53:59Z</time>
      </trkpt>
      <trkpt lat="42.4146" lon="0.10846">
        <ele>625.4</ele>
        <time>2017-07-02T11:54:01Z</time>
      </trkpt>
      <trkpt lat="42.41456" lon="0.10846">
        <ele>625.7</ele>
        <time>2017-07-02T11:54:04Z</time>
      </trkpt>
      <trkpt lat="42.41454" lon="0.10847">
        <ele>625.9</ele>
        <time>2017-07-02T11:54:07Z</time>
      </trkpt>
      <trkpt lat="42.4145" lon="0.10846">
        <ele>626.2</ele>
        <time>2017-07-02T11:54:11Z</time>
      </trkpt>
      <trkpt lat="42.41448" lon="0.10847">
        <ele>626.5</ele>
        <time>2017-07-02T11:54:14Z</time>
      </trkpt>
      <trkpt lat="42.41444" lon="0.10846">
        <ele>626.7</ele>
        <time>2017-07-02T11:54:17Z</time>
      </trkpt>
      <trkpt lat="42.41442" lon="0.10845">
        <ele>627</ele>
        <time>2017-07-02T11:54:19Z</time>
      </trkpt>
      <trkpt lat="42.41438" lon="0.10844">
        <ele>627.3</ele>
        <time>2017-07-02T11:54:22Z</time>
      </trkpt>
      <trkpt lat="42.41435" lon="0.10843">
        <ele>627.5</ele>
        <time>2017-07-02T11:54:24Z</time>
      </trkpt>
      <trkpt lat="42.41432" lon="0.10842">
        <ele>627.7</ele>
        <time>2017-07-02T11:54:26Z</time>
      </trkpt>
      <trkpt lat="42.41429" lon="0.10842">
        <ele>628</ele>
        <time>2017-07-02T11:54:28Z</time>
      </trkpt>
      <trkpt lat="42.41426" lon="0.10841">
        <ele>628.2</ele>
        <time>2017-07-02T11:54:30Z</time>
      </trkpt>
      <trkpt lat="42.41422" lon="0.1084">
        <ele>628.5</ele>
        <time>2017-07-02T11:54:32Z</time>
      </trkpt>
      <trkpt lat="42.41419" lon="0.1084">
        <ele>628.7</ele>
        <time>2017-07-02T11:54:34Z</time>
      </trkpt>
      <trkpt lat="42.41414" lon="0.10839">
        <ele>629.1</ele>
        <time>2017-07-02T11:54:36Z</time>
      </trkpt>
      <trkpt lat="42.41411" lon="0.10838">
        <ele>629.3</ele>
        <time>2017-07-02T11:54:38Z</time>
      </trkpt>
      <trkpt lat="42.41408" lon="0.10837">
        <ele>629.6</ele>
        <time>2017-07-02T11:54:40Z</time>
      </trkpt>
      <trkpt lat="42.41405" lon="0.10835">
        <ele>629.8</ele>
        <time>2017-07-02T11:54:42Z</time>
      </trkpt>
      <trkpt lat="42.41402" lon="0.10833">
        <ele>630.1</ele>
        <time>2017-07-02T11:54:44Z</time>
      </trkpt>
      <trkpt lat="42.41399" lon="0.10831">
        <ele>630.3</ele>
        <time>2017-07-02T11:54:46Z</time>
      </trkpt>
      <trkpt lat="42.41396" lon="0.10829">
        <ele>630.5</ele>
        <time>2017-07-02T11:54:48Z</time>
      </trkpt>
      <trkpt lat="42.41393" lon="0.10827">
        <ele>630.7</ele>
        <time>2017-07-02T11:54:50Z</time>
      </trkpt>
      <trkpt lat="42.4139" lon="0.10824">
        <ele>630.9</ele>
        <time>2017-07-02T11:54:52Z</time>
      </trkpt>
      <trkpt lat="42.41387" lon="0.10822">
        <ele>631.2</ele>
        <time>2017-07-02T11:54:54Z</time>
      </trkpt>
      <trkpt lat="42.41384" lon="0.1082">
        <ele>631.4</ele>
        <time>2017-07-02T11:54:56Z</time>
      </trkpt>
      <trkpt lat="42.41381" lon="0.10817">
        <ele>631.6</ele>
        <time>2017-07-02T11:54:58Z</time>
      </trkpt>
      <trkpt lat="42.41378" lon="0.10814">
        <ele>631.8</ele>
        <time>2017-07-02T11:55:00Z</time>
      </trkpt>
      <trkpt lat="42.41376" lon="0.10812">
        <ele>632</ele>
        <time>2017-07-02T11:55:02Z</time>
      </trkpt>
      <trkpt lat="42.41374" lon="0.10809">
        <ele>632.1</ele>
        <time>2017-07-02T11:55:04Z</time>
      </trkpt>
      <trkpt lat="42.41371" lon="0.10807">
        <ele>632.3</ele>
        <time>2017-07-02T11:55:06Z</time>
      </trkpt>
      <trkpt lat="42.41369" lon="0.10804">
        <ele>632.5</ele>
        <time>2017-07-02T11:55:08Z</time>
      </trkpt>
      <trkpt lat="42.41366" lon="0.10801">
        <ele>632.7</ele>
        <time>2017-07-02T11:55:11Z</time>
      </trkpt>
      <trkpt lat="42.41364" lon="0.10798">
        <ele>632.9</ele>
        <time>2017-07-02T11:55:13Z</time>
      </trkpt>
      <trkpt lat="42.41362" lon="0.10795">
        <ele>633</ele>
        <time>2017-07-02T11:55:15Z</time>
      </trkpt>
      <trkpt lat="42.41359" lon="0.10792">
        <ele>633.2</ele>
        <time>2017-07-02T11:55:17Z</time>
      </trkpt>
      <trkpt lat="42.41356" lon="0.1079">
        <ele>633.4</ele>
        <time>2017-07-02T11:55:19Z</time>
      </trkpt>
      <trkpt lat="42.41353" lon="0.10788">
        <ele>633.6</ele>
        <time>2017-07-02T11:55:21Z</time>
      </trkpt>
      <trkpt lat="42.4135" lon="0.10785">
        <ele>633.8</ele>
        <time>2017-07-02T11:55:23Z</time>
      </trkpt>
      <trkpt lat="42.41348" lon="0.10782">
        <ele>634</ele>
        <time>2017-07-02T11:55:25Z</time>
      </trkpt>
      <trkpt lat="42.41345" lon="0.1078">
        <ele>634.2</ele>
        <time>2017-07-02T11:55:27Z</time>
      </trkpt>
      <trkpt lat="42.41342" lon="0.10777">
        <ele>634.4</ele>
        <time>2017-07-02T11:55:29Z</time>
      </trkpt>
      <trkpt lat="42.4134" lon="0.10774">
        <ele>634.6</ele>
        <time>2017-07-02T11:55:31Z</time>
      </trkpt>
      <trkpt lat="42.41338" lon="0.1077">
        <ele>634.9</ele>
        <time>2017-07-02T11:55:33Z</time>
      </trkpt>
      <trkpt lat="42.41336" lon="0.10766">
        <ele>635.1</ele>
        <time>2017-07-02T11:55:35Z</time>
      </trkpt>
      <trkpt lat="42.41333" lon="0.10762">
        <ele>635.4</ele>
        <time>2017-07-02T11:55:37Z</time>
      </trkpt>
      <trkpt lat="42.4133" lon="0.10758">
        <ele>635.6</ele>
        <time>2017-07-02T11:55:39Z</time>
      </trkpt>
      <trkpt lat="42.41327" lon="0.10755">
        <ele>635.9</ele>
        <time>2017-07-02T11:55:41Z</time>
      </trkpt>
      <trkpt lat="42.41324" lon="0.10752">
        <ele>636.2</ele>
        <time>2017-07-02T11:55:43Z</time>
      </trkpt>
      <trkpt lat="42.41321" lon="0.10748">
        <ele>636.5</ele>
        <time>2017-07-02T11:55:45Z</time>
      </trkpt>
      <trkpt lat="42.41318" lon="0.10744">
        <ele>636.8</ele>
        <time>2017-07-02T11:55:47Z</time>
      </trkpt>
      <trkpt lat="42.41315" lon="0.10741">
        <ele>637.1</ele>
        <time>2017-07-02T11:55:49Z</time>
      </trkpt>
      <trkpt lat="42.41312" lon="0.10738">
        <ele>637.3</ele>
        <time>2017-07-02T11:55:51Z</time>
      </trkpt>
      <trkpt lat="42.41309" lon="0.10735">
        <ele>637.6</ele>
        <time>2017-07-02T11:55:53Z</time>
      </trkpt>
      <trkpt lat="42.41306" lon="0.10733">
        <ele>637.8</ele>
        <time>2017-07-02T11:55:55Z</time>
      </trkpt>
      <trkpt lat="42.41303" lon="0.10731">
        <ele>638.1</ele>
        <time>2017-07-02T11:55:57Z</time>
      </trkpt>
      <trkpt lat="42.413" lon="0.10728">
        <ele>638.4</ele>
        <time>2017-07-02T11:55:59Z</time>
      </trkpt>
      <trkpt lat="42.41296" lon="0.10726">
        <ele>638.7</ele>
        <time>2017-07-02T11:56:01Z</time>
      </trkpt>
      <trkpt lat="42.41293" lon="0.10722">
        <ele>638.9</ele>
        <time>2017-07-02T11:56:03Z</time>
      </trkpt>
      <trkpt lat="42.41289" lon="0.10719">
        <ele>639.2</ele>
        <time>2017-07-02T11:56:05Z</time>
      </trkpt>
      <trkpt lat="42.41285" lon="0.10718">
        <ele>639.5</ele>
        <time>2017-07-02T11:56:07Z</time>
      </trkpt>
      <trkpt lat="42.41281" lon="0.10717">
        <ele>639.7</ele>
        <time>2017-07-02T11:56:09Z</time>
      </trkpt>
      <trkpt lat="42.41278" lon="0.10716">
        <ele>639.8</ele>
        <time>2017-07-02T11:56:11Z</time>
      </trkpt>
      <trkpt lat="42.41274" lon="0.10714">
        <ele>640</ele>
        <time>2017-07-02T11:56:13Z</time>
      </trkpt>
      <trkpt lat="42.41271" lon="0.10712">
        <ele>640.2</ele>
        <time>2017-07-02T11:56:15Z</time>
      </trkpt>
      <trkpt lat="42.41269" lon="0.1071">
        <ele>640.3</ele>
        <time>2017-07-02T11:56:17Z</time>
      </trkpt>
      <trkpt lat="42.41266" lon="0.10709">
        <ele>640.4</ele>
        <time>2017-07-02T11:56:19Z</time>
      </trkpt>
      <trkpt lat="42.41262" lon="0.10707">
        <ele>640.5</ele>
        <time>2017-07-02T11:56:21Z</time>
      </trkpt>
      <trkpt lat="42.41259" lon="0.10706">
        <ele>640.6</ele>
        <time>2017-07-02T11:56:23Z</time>
      </trkpt>
      <trkpt lat="42.41256" lon="0.10703">
        <ele>640.7</ele>
        <time>2017-07-02T11:56:25Z</time>
      </trkpt>
      <trkpt lat="42.41253" lon="0.10702">
        <ele>640.8</ele>
        <time>2017-07-02T11:56:27Z</time>
      </trkpt>
      <trkpt lat="42.41249" lon="0.10702">
        <ele>640.9</ele>
        <time>2017-07-02T11:56:29Z</time>
      </trkpt>
      <trkpt lat="42.41246" lon="0.10701">
        <ele>640.9</ele>
        <time>2017-07-02T11:56:31Z</time>
      </trkpt>
      <trkpt lat="42.41242" lon="0.107">
        <ele>641</ele>
        <time>2017-07-02T11:56:33Z</time>
      </trkpt>
      <trkpt lat="42.41239" lon="0.10699">
        <ele>641</ele>
        <time>2017-07-02T11:56:35Z</time>
      </trkpt>
      <trkpt lat="42.41236" lon="0.10698">
        <ele>641.1</ele>
        <time>2017-07-02T11:56:37Z</time>
      </trkpt>
      <trkpt lat="42.41232" lon="0.10696">
        <ele>641.1</ele>
        <time>2017-07-02T11:56:39Z</time>
      </trkpt>
      <trkpt lat="42.41229" lon="0.10695">
        <ele>641.1</ele>
        <time>2017-07-02T11:56:41Z</time>
      </trkpt>
      <trkpt lat="42.41225" lon="0.10693">
        <ele>641.1</ele>
        <time>2017-07-02T11:56:43Z</time>
      </trkpt>
      <trkpt lat="42.41221" lon="0.10691">
        <ele>641.2</ele>
        <time>2017-07-02T11:56:45Z</time>
      </trkpt>
      <trkpt lat="42.41217" lon="0.1069">
        <ele>641.2</ele>
        <time>2017-07-02T11:56:47Z</time>
      </trkpt>
      <trkpt lat="42.41213" lon="0.10688">
        <ele>641.2</ele>
        <time>2017-07-02T11:56:49Z</time>
      </trkpt>
      <trkpt lat="42.41209" lon="0.10684">
        <ele>641.2</ele>
        <time>2017-07-02T11:56:51Z</time>
      </trkpt>
      <trkpt lat="42.41205" lon="0.1068">
        <ele>641.3</ele>
        <time>2017-07-02T11:56:53Z</time>
      </trkpt>
      <trkpt lat="42.41202" lon="0.10675">
        <ele>641.3</ele>
        <time>2017-07-02T11:56:55Z</time>
      </trkpt>
      <trkpt lat="42.41199" lon="0.10669">
        <ele>641.3</ele>
        <time>2017-07-02T11:56:57Z</time>
      </trkpt>
      <trkpt lat="42.41198" lon="0.10662">
        <ele>641.4</ele>
        <time>2017-07-02T11:56:59Z</time>
      </trkpt>
      <trkpt lat="42.41197" lon="0.10658">
        <ele>641.4</ele>
        <time>2017-07-02T11:57:00Z</time>
      </trkpt>
      <trkpt lat="42.41197" lon="0.10654">
        <ele>641.4</ele>
        <time>2017-07-02T11:57:01Z</time>
      </trkpt>
      <trkpt lat="42.41197" lon="0.10651">
        <ele>641.4</ele>
        <time>2017-07-02T11:57:02Z</time>
      </trkpt>
      <trkpt lat="42.41197" lon="0.10647">
        <ele>641.5</ele>
        <time>2017-07-02T11:57:03Z</time>
      </trkpt>
      <trkpt lat="42.41197" lon="0.10643">
        <ele>641.5</ele>
        <time>2017-07-02T11:57:04Z</time>
      </trkpt>
      <trkpt lat="42.41198" lon="0.1064">
        <ele>641.5</ele>
        <time>2017-07-02T11:57:05Z</time>
      </trkpt>
      <trkpt lat="42.41198" lon="0.10636">
        <ele>641.5</ele>
        <time>2017-07-02T11:57:06Z</time>
      </trkpt>
      <trkpt lat="42.41198" lon="0.10632">
        <ele>641.5</ele>
        <time>2017-07-02T11:57:07Z</time>
      </trkpt>
      <trkpt lat="42.41198" lon="0.10628">
        <ele>641.5</ele>
        <time>2017-07-02T11:57:08Z</time>
      </trkpt>
      <trkpt lat="42.41199" lon="0.10624">
        <ele>641.5</ele>
        <time>2017-07-02T11:57:09Z</time>
      </trkpt>
      <trkpt lat="42.41199" lon="0.10621">
        <ele>641.6</ele>
        <time>2017-07-02T11:57:10Z</time>
      </trkpt>
      <trkpt lat="42.412" lon="0.10617">
        <ele>641.6</ele>
        <time>2017-07-02T11:57:11Z</time>
      </trkpt>
      <trkpt lat="42.412" lon="0.10614">
        <ele>641.7</ele>
        <time>2017-07-02T11:57:12Z</time>
      </trkpt>
      <trkpt lat="42.41201" lon="0.1061">
        <ele>641.8</ele>
        <time>2017-07-02T11:57:13Z</time>
      </trkpt>
      <trkpt lat="42.41201" lon="0.10603">
        <ele>642</ele>
        <time>2017-07-02T11:57:15Z</time>
      </trkpt>
      <trkpt lat="42.41201" lon="0.10599">
        <ele>642.1</ele>
        <time>2017-07-02T11:57:16Z</time>
      </trkpt>
      <trkpt lat="42.412" lon="0.10595">
        <ele>642.2</ele>
        <time>2017-07-02T11:57:17Z</time>
      </trkpt>
      <trkpt lat="42.41198" lon="0.10589">
        <ele>642.5</ele>
        <time>2017-07-02T11:57:19Z</time>
      </trkpt>
      <trkpt lat="42.41195" lon="0.10584">
        <ele>642.7</ele>
        <time>2017-07-02T11:57:21Z</time>
      </trkpt>
      <trkpt lat="42.41191" lon="0.10579">
        <ele>643</ele>
        <time>2017-07-02T11:57:23Z</time>
      </trkpt>
      <trkpt lat="42.41188" lon="0.10575">
        <ele>643.1</ele>
        <time>2017-07-02T11:57:25Z</time>
      </trkpt>
      <trkpt lat="42.41183" lon="0.10573">
        <ele>643.2</ele>
        <time>2017-07-02T11:57:27Z</time>
      </trkpt>
      <trkpt lat="42.41179" lon="0.10573">
        <ele>643.3</ele>
        <time>2017-07-02T11:57:29Z</time>
      </trkpt>
      <trkpt lat="42.41174" lon="0.10574">
        <ele>643.2</ele>
        <time>2017-07-02T11:57:31Z</time>
      </trkpt>
      <trkpt lat="42.41169" lon="0.10575">
        <ele>643.2</ele>
        <time>2017-07-02T11:57:33Z</time>
      </trkpt>
      <trkpt lat="42.41166" lon="0.10578">
        <ele>643.1</ele>
        <time>2017-07-02T11:57:35Z</time>
      </trkpt>
      <trkpt lat="42.41163" lon="0.10581">
        <ele>643.1</ele>
        <time>2017-07-02T11:57:37Z</time>
      </trkpt>
      <trkpt lat="42.4116" lon="0.10584">
        <ele>643</ele>
        <time>2017-07-02T11:57:40Z</time>
      </trkpt>
      <trkpt lat="42.41158" lon="0.10581">
        <ele>643</ele>
        <time>2017-07-02T11:57:43Z</time>
      </trkpt>
      <trkpt lat="42.4116" lon="0.10575">
        <ele>643.5</ele>
        <time>2017-07-02T11:57:45Z</time>
      </trkpt>
      <trkpt lat="42.41164" lon="0.10571">
        <ele>644.1</ele>
        <time>2017-07-02T11:57:47Z</time>
      </trkpt>
      <trkpt lat="42.41167" lon="0.10569">
        <ele>644.5</ele>
        <time>2017-07-02T11:57:48Z</time>
      </trkpt>
      <trkpt lat="42.41169" lon="0.10567">
        <ele>644.8</ele>
        <time>2017-07-02T11:57:49Z</time>
      </trkpt>
      <trkpt lat="42.41174" lon="0.10565">
        <ele>645.4</ele>
        <time>2017-07-02T11:57:51Z</time>
      </trkpt>
      <trkpt lat="42.41178" lon="0.10562">
        <ele>646</ele>
        <time>2017-07-02T11:57:53Z</time>
      </trkpt>
      <trkpt lat="42.41182" lon="0.1056">
        <ele>646.5</ele>
        <time>2017-07-02T11:57:55Z</time>
      </trkpt>
      <trkpt lat="42.41186" lon="0.10558">
        <ele>647.1</ele>
        <time>2017-07-02T11:57:57Z</time>
      </trkpt>
      <trkpt lat="42.41189" lon="0.10554">
        <ele>647.7</ele>
        <time>2017-07-02T11:57:59Z</time>
      </trkpt>
      <trkpt lat="42.41192" lon="0.10551">
        <ele>648.3</ele>
        <time>2017-07-02T11:58:01Z</time>
      </trkpt>
      <trkpt lat="42.41194" lon="0.10547">
        <ele>648.8</ele>
        <time>2017-07-02T11:58:03Z</time>
      </trkpt>
      <trkpt lat="42.41197" lon="0.10543">
        <ele>649.2</ele>
        <time>2017-07-02T11:58:05Z</time>
      </trkpt>
      <trkpt lat="42.41201" lon="0.10542">
        <ele>649.6</ele>
        <time>2017-07-02T11:58:07Z</time>
      </trkpt>
      <trkpt lat="42.41205" lon="0.10542">
        <ele>650</ele>
        <time>2017-07-02T11:58:09Z</time>
      </trkpt>
      <trkpt lat="42.41209" lon="0.10543">
        <ele>650.3</ele>
        <time>2017-07-02T11:58:11Z</time>
      </trkpt>
      <trkpt lat="42.41213" lon="0.10543">
        <ele>650.7</ele>
        <time>2017-07-02T11:58:13Z</time>
      </trkpt>
      <trkpt lat="42.41217" lon="0.10543">
        <ele>651.1</ele>
        <time>2017-07-02T11:58:15Z</time>
      </trkpt>
      <trkpt lat="42.41221" lon="0.10542">
        <ele>651.4</ele>
        <time>2017-07-02T11:58:17Z</time>
      </trkpt>
      <trkpt lat="42.41224" lon="0.10543">
        <ele>651.7</ele>
        <time>2017-07-02T11:58:19Z</time>
      </trkpt>
      <trkpt lat="42.41227" lon="0.10543">
        <ele>652</ele>
        <time>2017-07-02T11:58:21Z</time>
      </trkpt>
      <trkpt lat="42.41231" lon="0.10544">
        <ele>652.3</ele>
        <time>2017-07-02T11:58:23Z</time>
      </trkpt>
      <trkpt lat="42.41234" lon="0.10543">
        <ele>652.6</ele>
        <time>2017-07-02T11:58:25Z</time>
      </trkpt>
      <trkpt lat="42.41237" lon="0.10542">
        <ele>652.8</ele>
        <time>2017-07-02T11:58:27Z</time>
      </trkpt>
      <trkpt lat="42.41241" lon="0.10541">
        <ele>653.9</ele>
        <time>2017-07-02T11:58:30Z</time>
      </trkpt>
      <trkpt lat="42.41243" lon="0.10539">
        <ele>655.1</ele>
        <time>2017-07-02T11:58:32Z</time>
      </trkpt>
      <trkpt lat="42.41246" lon="0.10536">
        <ele>656.7</ele>
        <time>2017-07-02T11:58:35Z</time>
      </trkpt>
      <trkpt lat="42.41248" lon="0.10533">
        <ele>657.8</ele>
        <time>2017-07-02T11:58:37Z</time>
      </trkpt>
      <trkpt lat="42.41249" lon="0.1053">
        <ele>659</ele>
        <time>2017-07-02T11:58:39Z</time>
      </trkpt>
      <trkpt lat="42.41251" lon="0.10525">
        <ele>660.4</ele>
        <time>2017-07-02T11:58:42Z</time>
      </trkpt>
      <trkpt lat="42.41252" lon="0.10521">
        <ele>662</ele>
        <time>2017-07-02T11:58:45Z</time>
      </trkpt>
      <trkpt lat="42.41255" lon="0.10516">
        <ele>663.6</ele>
        <time>2017-07-02T11:58:48Z</time>
      </trkpt>
      <trkpt lat="42.41256" lon="0.10512">
        <ele>665</ele>
        <time>2017-07-02T11:58:51Z</time>
      </trkpt>
      <trkpt lat="42.41258" lon="0.10509">
        <ele>666.4</ele>
        <time>2017-07-02T11:58:54Z</time>
      </trkpt>
      <trkpt lat="42.41262" lon="0.10507">
        <ele>668</ele>
        <time>2017-07-02T11:58:57Z</time>
      </trkpt>
      <trkpt lat="42.41265" lon="0.10507">
        <ele>668.1</ele>
        <time>2017-07-02T11:58:59Z</time>
      </trkpt>
      <trkpt lat="42.41268" lon="0.10506">
        <ele>668.2</ele>
        <time>2017-07-02T11:59:01Z</time>
      </trkpt>
      <trkpt lat="42.4127" lon="0.10504">
        <ele>668.4</ele>
        <time>2017-07-02T11:59:09Z</time>
      </trkpt>
      <trkpt lat="42.41271" lon="0.105">
        <ele>668.5</ele>
        <time>2017-07-02T11:59:15Z</time>
      </trkpt>
      <trkpt lat="42.41272" lon="0.10497">
        <ele>668.6</ele>
        <time>2017-07-02T11:59:23Z</time>
      </trkpt>
      <trkpt lat="42.41275" lon="0.10496">
        <ele>668.8</ele>
        <time>2017-07-02T11:59:28Z</time>
      </trkpt>
      <trkpt lat="42.41277" lon="0.10495">
        <ele>669.3</ele>
        <time>2017-07-02T11:59:34Z</time>
      </trkpt>
      <trkpt lat="42.4128" lon="0.10492">
        <ele>669.8</ele>
        <time>2017-07-02T11:59:36Z</time>
      </trkpt>
      <trkpt lat="42.41282" lon="0.10489">
        <ele>670.1</ele>
        <time>2017-07-02T11:59:38Z</time>
      </trkpt>
      <trkpt lat="42.41284" lon="0.10487">
        <ele>670.4</ele>
        <time>2017-07-02T11:59:40Z</time>
      </trkpt>
      <trkpt lat="42.41287" lon="0.10485">
        <ele>670.6</ele>
        <time>2017-07-02T11:59:42Z</time>
      </trkpt>
      <trkpt lat="42.4129" lon="0.10484">
        <ele>670.9</ele>
        <time>2017-07-02T11:59:44Z</time>
      </trkpt>
      <trkpt lat="42.41293" lon="0.10483">
        <ele>671.2</ele>
        <time>2017-07-02T11:59:46Z</time>
      </trkpt>
      <trkpt lat="42.41297" lon="0.10481">
        <ele>671.8</ele>
        <time>2017-07-02T11:59:48Z</time>
      </trkpt>
      <trkpt lat="42.413" lon="0.10479">
        <ele>672.6</ele>
        <time>2017-07-02T11:59:50Z</time>
      </trkpt>
      <trkpt lat="42.41303" lon="0.10477">
        <ele>672.9</ele>
        <time>2017-07-02T11:59:52Z</time>
      </trkpt>
      <trkpt lat="42.41306" lon="0.10476">
        <ele>673.3</ele>
        <time>2017-07-02T11:59:54Z</time>
      </trkpt>
      <trkpt lat="42.41309" lon="0.10474">
        <ele>673.8</ele>
        <time>2017-07-02T11:59:56Z</time>
      </trkpt>
      <trkpt lat="42.41311" lon="0.10471">
        <ele>674.3</ele>
        <time>2017-07-02T11:59:58Z</time>
      </trkpt>
      <trkpt lat="42.41314" lon="0.10468">
        <ele>674.7</ele>
        <time>2017-07-02T12:00:01Z</time>
      </trkpt>
      <trkpt lat="42.41317" lon="0.10465">
        <ele>675.1</ele>
        <time>2017-07-02T12:00:04Z</time>
      </trkpt>
      <trkpt lat="42.4132" lon="0.10463">
        <ele>675.3</ele>
        <time>2017-07-02T12:00:06Z</time>
      </trkpt>
      <trkpt lat="42.41323" lon="0.10461">
        <ele>675.6</ele>
        <time>2017-07-02T12:00:08Z</time>
      </trkpt>
      <trkpt lat="42.41325" lon="0.10458">
        <ele>676.2</ele>
        <time>2017-07-02T12:00:10Z</time>
      </trkpt>
      <trkpt lat="42.41327" lon="0.10456">
        <ele>676.8</ele>
        <time>2017-07-02T12:00:12Z</time>
      </trkpt>
      <trkpt lat="42.4133" lon="0.10453">
        <ele>677.1</ele>
        <time>2017-07-02T12:00:14Z</time>
      </trkpt>
      <trkpt lat="42.41332" lon="0.10451">
        <ele>677.3</ele>
        <time>2017-07-02T12:00:16Z</time>
      </trkpt>
      <trkpt lat="42.41334" lon="0.10447">
        <ele>677.5</ele>
        <time>2017-07-02T12:00:18Z</time>
      </trkpt>
      <trkpt lat="42.41336" lon="0.10444">
        <ele>677.8</ele>
        <time>2017-07-02T12:00:20Z</time>
      </trkpt>
      <trkpt lat="42.41338" lon="0.10441">
        <ele>678.1</ele>
        <time>2017-07-02T12:00:22Z</time>
      </trkpt>
      <trkpt lat="42.41341" lon="0.10438">
        <ele>678.8</ele>
        <time>2017-07-02T12:00:24Z</time>
      </trkpt>
      <trkpt lat="42.41344" lon="0.10436">
        <ele>679.3</ele>
        <time>2017-07-02T12:00:26Z</time>
      </trkpt>
      <trkpt lat="42.41345" lon="0.10433">
        <ele>679.6</ele>
        <time>2017-07-02T12:00:28Z</time>
      </trkpt>
      <trkpt lat="42.41348" lon="0.10429">
        <ele>679.9</ele>
        <time>2017-07-02T12:00:31Z</time>
      </trkpt>
      <trkpt lat="42.4135" lon="0.10426">
        <ele>680.5</ele>
        <time>2017-07-02T12:00:33Z</time>
      </trkpt>
      <trkpt lat="42.41352" lon="0.10423">
        <ele>681</ele>
        <time>2017-07-02T12:00:35Z</time>
      </trkpt>
      <trkpt lat="42.41355" lon="0.1042">
        <ele>681.4</ele>
        <time>2017-07-02T12:00:37Z</time>
      </trkpt>
      <trkpt lat="42.41357" lon="0.10419">
        <ele>681.5</ele>
        <time>2017-07-02T12:00:39Z</time>
      </trkpt>
      <trkpt lat="42.4136" lon="0.10418">
        <ele>681.6</ele>
        <time>2017-07-02T12:00:41Z</time>
      </trkpt>
      <trkpt lat="42.41362" lon="0.10416">
        <ele>681.8</ele>
        <time>2017-07-02T12:00:43Z</time>
      </trkpt>
      <trkpt lat="42.41366" lon="0.10413">
        <ele>681.9</ele>
        <time>2017-07-02T12:00:46Z</time>
      </trkpt>
      <trkpt lat="42.41369" lon="0.1041">
        <ele>682.1</ele>
        <time>2017-07-02T12:00:48Z</time>
      </trkpt>
      <trkpt lat="42.41371" lon="0.10408">
        <ele>682.2</ele>
        <time>2017-07-02T12:00:50Z</time>
      </trkpt>
      <trkpt lat="42.41375" lon="0.10406">
        <ele>682.3</ele>
        <time>2017-07-02T12:00:52Z</time>
      </trkpt>
      <trkpt lat="42.41377" lon="0.10404">
        <ele>682.5</ele>
        <time>2017-07-02T12:00:54Z</time>
      </trkpt>
      <trkpt lat="42.4138" lon="0.10402">
        <ele>682.7</ele>
        <time>2017-07-02T12:00:56Z</time>
      </trkpt>
      <trkpt lat="42.41383" lon="0.10399">
        <ele>683.1</ele>
        <time>2017-07-02T12:00:58Z</time>
      </trkpt>
      <trkpt lat="42.41385" lon="0.10397">
        <ele>683.5</ele>
        <time>2017-07-02T12:01:00Z</time>
      </trkpt>
      <trkpt lat="42.41389" lon="0.10394">
        <ele>683.7</ele>
        <time>2017-07-02T12:01:02Z</time>
      </trkpt>
      <trkpt lat="42.41392" lon="0.10392">
        <ele>684</ele>
        <time>2017-07-02T12:01:04Z</time>
      </trkpt>
      <trkpt lat="42.41396" lon="0.10391">
        <ele>684.2</ele>
        <time>2017-07-02T12:01:06Z</time>
      </trkpt>
      <trkpt lat="42.41398" lon="0.1039">
        <ele>684.3</ele>
        <time>2017-07-02T12:01:08Z</time>
      </trkpt>
      <trkpt lat="42.41402" lon="0.10387">
        <ele>684.5</ele>
        <time>2017-07-02T12:01:11Z</time>
      </trkpt>
      <trkpt lat="42.41404" lon="0.10384">
        <ele>684.7</ele>
        <time>2017-07-02T12:01:13Z</time>
      </trkpt>
      <trkpt lat="42.41406" lon="0.10381">
        <ele>684.8</ele>
        <time>2017-07-02T12:01:15Z</time>
      </trkpt>
      <trkpt lat="42.41409" lon="0.10376">
        <ele>685</ele>
        <time>2017-07-02T12:01:17Z</time>
      </trkpt>
      <trkpt lat="42.41411" lon="0.10371">
        <ele>685.5</ele>
        <time>2017-07-02T12:01:19Z</time>
      </trkpt>
      <trkpt lat="42.41414" lon="0.10365">
        <ele>686.1</ele>
        <time>2017-07-02T12:01:21Z</time>
      </trkpt>
      <trkpt lat="42.41417" lon="0.10361">
        <ele>686.5</ele>
        <time>2017-07-02T12:01:23Z</time>
      </trkpt>
      <trkpt lat="42.4142" lon="0.10357">
        <ele>686.8</ele>
        <time>2017-07-02T12:01:25Z</time>
      </trkpt>
      <trkpt lat="42.41423" lon="0.10353">
        <ele>687.1</ele>
        <time>2017-07-02T12:01:27Z</time>
      </trkpt>
      <trkpt lat="42.41427" lon="0.1035">
        <ele>687.6</ele>
        <time>2017-07-02T12:01:29Z</time>
      </trkpt>
      <trkpt lat="42.41431" lon="0.10349">
        <ele>688.4</ele>
        <time>2017-07-02T12:01:31Z</time>
      </trkpt>
      <trkpt lat="42.41435" lon="0.10349">
        <ele>688.9</ele>
        <time>2017-07-02T12:01:33Z</time>
      </trkpt>
      <trkpt lat="42.41438" lon="0.10349">
        <ele>689.1</ele>
        <time>2017-07-02T12:01:35Z</time>
      </trkpt>
      <trkpt lat="42.41442" lon="0.10348">
        <ele>689.5</ele>
        <time>2017-07-02T12:01:37Z</time>
      </trkpt>
      <trkpt lat="42.41446" lon="0.10347">
        <ele>690.2</ele>
        <time>2017-07-02T12:01:39Z</time>
      </trkpt>
      <trkpt lat="42.41448" lon="0.10345">
        <ele>690.9</ele>
        <time>2017-07-02T12:01:41Z</time>
      </trkpt>
      <trkpt lat="42.41451" lon="0.10342">
        <ele>691.3</ele>
        <time>2017-07-02T12:01:43Z</time>
      </trkpt>
      <trkpt lat="42.41454" lon="0.1034">
        <ele>691.5</ele>
        <time>2017-07-02T12:01:45Z</time>
      </trkpt>
      <trkpt lat="42.41457" lon="0.10338">
        <ele>691.8</ele>
        <time>2017-07-02T12:01:47Z</time>
      </trkpt>
      <trkpt lat="42.41459" lon="0.10337">
        <ele>692.1</ele>
        <time>2017-07-02T12:01:49Z</time>
      </trkpt>
      <trkpt lat="42.41462" lon="0.10335">
        <ele>692.7</ele>
        <time>2017-07-02T12:01:51Z</time>
      </trkpt>
      <trkpt lat="42.41465" lon="0.10332">
        <ele>693.4</ele>
        <time>2017-07-02T12:01:53Z</time>
      </trkpt>
      <trkpt lat="42.41468" lon="0.10328">
        <ele>693.9</ele>
        <time>2017-07-02T12:01:55Z</time>
      </trkpt>
      <trkpt lat="42.4147" lon="0.10326">
        <ele>694.1</ele>
        <time>2017-07-02T12:01:57Z</time>
      </trkpt>
      <trkpt lat="42.41473" lon="0.10324">
        <ele>694.3</ele>
        <time>2017-07-02T12:01:59Z</time>
      </trkpt>
      <trkpt lat="42.41476" lon="0.10322">
        <ele>694.8</ele>
        <time>2017-07-02T12:02:01Z</time>
      </trkpt>
      <trkpt lat="42.41478" lon="0.10319">
        <ele>695.3</ele>
        <time>2017-07-02T12:02:03Z</time>
      </trkpt>
      <trkpt lat="42.41481" lon="0.10316">
        <ele>695.6</ele>
        <time>2017-07-02T12:02:05Z</time>
      </trkpt>
      <trkpt lat="42.41483" lon="0.10313">
        <ele>695.8</ele>
        <time>2017-07-02T12:02:07Z</time>
      </trkpt>
      <trkpt lat="42.41485" lon="0.10311">
        <ele>696.1</ele>
        <time>2017-07-02T12:02:09Z</time>
      </trkpt>
      <trkpt lat="42.41487" lon="0.10307">
        <ele>696.4</ele>
        <time>2017-07-02T12:02:34Z</time>
      </trkpt>
      <trkpt lat="42.4149" lon="0.10304">
        <ele>696.6</ele>
        <time>2017-07-02T12:02:36Z</time>
      </trkpt>
      <trkpt lat="42.41492" lon="0.103">
        <ele>696.9</ele>
        <time>2017-07-02T12:02:38Z</time>
      </trkpt>
      <trkpt lat="42.41496" lon="0.10296">
        <ele>697.3</ele>
        <time>2017-07-02T12:02:40Z</time>
      </trkpt>
      <trkpt lat="42.41499" lon="0.10294">
        <ele>698.2</ele>
        <time>2017-07-02T12:02:42Z</time>
      </trkpt>
      <trkpt lat="42.41502" lon="0.1029">
        <ele>699.2</ele>
        <time>2017-07-02T12:02:44Z</time>
      </trkpt>
      <trkpt lat="42.41505" lon="0.10285">
        <ele>699.7</ele>
        <time>2017-07-02T12:02:46Z</time>
      </trkpt>
      <trkpt lat="42.41506" lon="0.10281">
        <ele>700</ele>
        <time>2017-07-02T12:02:48Z</time>
      </trkpt>
      <trkpt lat="42.41508" lon="0.10277">
        <ele>700.3</ele>
        <time>2017-07-02T12:02:50Z</time>
      </trkpt>
      <trkpt lat="42.41508" lon="0.10271">
        <ele>700.9</ele>
        <time>2017-07-02T12:02:52Z</time>
      </trkpt>
      <trkpt lat="42.4151" lon="0.10268">
        <ele>701.8</ele>
        <time>2017-07-02T12:03:10Z</time>
      </trkpt>
      <trkpt lat="42.4151" lon="0.10264">
        <ele>702.3</ele>
        <time>2017-07-02T12:03:13Z</time>
      </trkpt>
      <trkpt lat="42.41511" lon="0.1026">
        <ele>702.7</ele>
        <time>2017-07-02T12:03:16Z</time>
      </trkpt>
      <trkpt lat="42.41514" lon="0.10257">
        <ele>703</ele>
        <time>2017-07-02T12:03:20Z</time>
      </trkpt>
      <trkpt lat="42.41516" lon="0.10254">
        <ele>703.2</ele>
        <time>2017-07-02T12:03:23Z</time>
      </trkpt>
      <trkpt lat="42.41519" lon="0.10252">
        <ele>703.3</ele>
        <time>2017-07-02T12:03:25Z</time>
      </trkpt>
      <trkpt lat="42.41521" lon="0.10249">
        <ele>703.6</ele>
        <time>2017-07-02T12:03:27Z</time>
      </trkpt>
      <trkpt lat="42.41524" lon="0.10248">
        <ele>703.9</ele>
        <time>2017-07-02T12:03:29Z</time>
      </trkpt>
      <trkpt lat="42.41528" lon="0.10248">
        <ele>704.1</ele>
        <time>2017-07-02T12:03:31Z</time>
      </trkpt>
      <trkpt lat="42.41531" lon="0.10246">
        <ele>704.5</ele>
        <time>2017-07-02T12:03:33Z</time>
      </trkpt>
      <trkpt lat="42.41533" lon="0.10243">
        <ele>705.1</ele>
        <time>2017-07-02T12:03:35Z</time>
      </trkpt>
      <trkpt lat="42.41535" lon="0.10239">
        <ele>705.5</ele>
        <time>2017-07-02T12:03:37Z</time>
      </trkpt>
      <trkpt lat="42.41538" lon="0.10236">
        <ele>705.8</ele>
        <time>2017-07-02T12:03:39Z</time>
      </trkpt>
      <trkpt lat="42.41541" lon="0.10234">
        <ele>706.1</ele>
        <time>2017-07-02T12:03:41Z</time>
      </trkpt>
      <trkpt lat="42.41543" lon="0.10232">
        <ele>706.4</ele>
        <time>2017-07-02T12:03:43Z</time>
      </trkpt>
      <trkpt lat="42.41545" lon="0.1023">
        <ele>707</ele>
        <time>2017-07-02T12:03:45Z</time>
      </trkpt>
      <trkpt lat="42.41548" lon="0.10228">
        <ele>707.8</ele>
        <time>2017-07-02T12:03:47Z</time>
      </trkpt>
      <trkpt lat="42.4155" lon="0.10226">
        <ele>708.4</ele>
        <time>2017-07-02T12:03:49Z</time>
      </trkpt>
      <trkpt lat="42.41553" lon="0.10223">
        <ele>709.5</ele>
        <time>2017-07-02T12:03:51Z</time>
      </trkpt>
      <trkpt lat="42.41557" lon="0.10221">
        <ele>710.4</ele>
        <time>2017-07-02T12:03:54Z</time>
      </trkpt>
      <trkpt lat="42.4156" lon="0.10219">
        <ele>711</ele>
        <time>2017-07-02T12:03:56Z</time>
      </trkpt>
      <trkpt lat="42.41562" lon="0.10214">
        <ele>711.7</ele>
        <time>2017-07-02T12:03:58Z</time>
      </trkpt>
      <trkpt lat="42.41563" lon="0.10211">
        <ele>712.3</ele>
        <time>2017-07-02T12:04:03Z</time>
      </trkpt>
      <trkpt lat="42.41566" lon="0.10209">
        <ele>712.4</ele>
        <time>2017-07-02T12:04:08Z</time>
      </trkpt>
      <trkpt lat="42.41569" lon="0.10208">
        <ele>712.6</ele>
        <time>2017-07-02T12:04:12Z</time>
      </trkpt>
      <trkpt lat="42.41571" lon="0.10206">
        <ele>712.7</ele>
        <time>2017-07-02T12:04:17Z</time>
      </trkpt>
      <trkpt lat="42.41572" lon="0.10202">
        <ele>712.7</ele>
        <time>2017-07-02T12:04:22Z</time>
      </trkpt>
      <trkpt lat="42.41574" lon="0.10199">
        <ele>712.7</ele>
        <time>2017-07-02T12:04:26Z</time>
      </trkpt>
      <trkpt lat="42.41577" lon="0.10197">
        <ele>712.7</ele>
        <time>2017-07-02T12:04:32Z</time>
      </trkpt>
      <trkpt lat="42.41584" lon="0.10195">
        <ele>712.7</ele>
        <time>2017-07-02T12:05:04Z</time>
      </trkpt>
      <trkpt lat="42.41589" lon="0.10194">
        <ele>712.6</ele>
        <time>2017-07-02T12:05:06Z</time>
      </trkpt>
      <trkpt lat="42.41592" lon="0.10194">
        <ele>712.6</ele>
        <time>2017-07-02T12:05:07Z</time>
      </trkpt>
      <trkpt lat="42.41596" lon="0.10194">
        <ele>712.5</ele>
        <time>2017-07-02T12:05:08Z</time>
      </trkpt>
      <trkpt lat="42.41599" lon="0.10193">
        <ele>712.4</ele>
        <time>2017-07-02T12:05:09Z</time>
      </trkpt>
      <trkpt lat="42.41602" lon="0.10192">
        <ele>712.3</ele>
        <time>2017-07-02T12:05:10Z</time>
      </trkpt>
      <trkpt lat="42.41605" lon="0.10192">
        <ele>712.2</ele>
        <time>2017-07-02T12:05:11Z</time>
      </trkpt>
      <trkpt lat="42.41608" lon="0.10191">
        <ele>712.1</ele>
        <time>2017-07-02T12:05:12Z</time>
      </trkpt>
      <trkpt lat="42.41611" lon="0.10189">
        <ele>711.8</ele>
        <time>2017-07-02T12:05:13Z</time>
      </trkpt>
      <trkpt lat="42.41614" lon="0.10188">
        <ele>711.5</ele>
        <time>2017-07-02T12:05:14Z</time>
      </trkpt>
      <trkpt lat="42.41618" lon="0.10187">
        <ele>711.2</ele>
        <time>2017-07-02T12:05:15Z</time>
      </trkpt>
      <trkpt lat="42.41623" lon="0.10185">
        <ele>710.8</ele>
        <time>2017-07-02T12:05:16Z</time>
      </trkpt>
      <trkpt lat="42.41627" lon="0.10183">
        <ele>710.4</ele>
        <time>2017-07-02T12:05:17Z</time>
      </trkpt>
      <trkpt lat="42.41631" lon="0.1018">
        <ele>710.1</ele>
        <time>2017-07-02T12:05:18Z</time>
      </trkpt>
      <trkpt lat="42.41635" lon="0.10177">
        <ele>709.8</ele>
        <time>2017-07-02T12:05:19Z</time>
      </trkpt>
      <trkpt lat="42.41639" lon="0.10176">
        <ele>709.6</ele>
        <time>2017-07-02T12:05:20Z</time>
      </trkpt>
      <trkpt lat="42.41643" lon="0.10176">
        <ele>709.5</ele>
        <time>2017-07-02T12:05:21Z</time>
      </trkpt>
      <trkpt lat="42.41646" lon="0.10176">
        <ele>709.5</ele>
        <time>2017-07-02T12:05:22Z</time>
      </trkpt>
      <trkpt lat="42.41649" lon="0.10177">
        <ele>709.5</ele>
        <time>2017-07-02T12:05:23Z</time>
      </trkpt>
      <trkpt lat="42.41653" lon="0.10177">
        <ele>709.5</ele>
        <time>2017-07-02T12:05:25Z</time>
      </trkpt>
      <trkpt lat="42.41656" lon="0.10175">
        <ele>709.5</ele>
        <time>2017-07-02T12:05:27Z</time>
      </trkpt>
      <trkpt lat="42.41659" lon="0.10173">
        <ele>709.6</ele>
        <time>2017-07-02T12:05:29Z</time>
      </trkpt>
      <trkpt lat="42.41662" lon="0.1017">
        <ele>709.7</ele>
        <time>2017-07-02T12:05:31Z</time>
      </trkpt>
      <trkpt lat="42.41666" lon="0.10167">
        <ele>709.7</ele>
        <time>2017-07-02T12:05:33Z</time>
      </trkpt>
      <trkpt lat="42.41668" lon="0.10163">
        <ele>709.8</ele>
        <time>2017-07-02T12:05:35Z</time>
      </trkpt>
      <trkpt lat="42.41671" lon="0.10159">
        <ele>710.1</ele>
        <time>2017-07-02T12:05:37Z</time>
      </trkpt>
      <trkpt lat="42.41673" lon="0.10155">
        <ele>710.5</ele>
        <time>2017-07-02T12:05:39Z</time>
      </trkpt>
      <trkpt lat="42.41676" lon="0.10153">
        <ele>710.9</ele>
        <time>2017-07-02T12:05:41Z</time>
      </trkpt>
      <trkpt lat="42.4168" lon="0.10153">
        <ele>711.1</ele>
        <time>2017-07-02T12:05:43Z</time>
      </trkpt>
      <trkpt lat="42.41684" lon="0.10154">
        <ele>711.3</ele>
        <time>2017-07-02T12:05:45Z</time>
      </trkpt>
      <trkpt lat="42.41688" lon="0.10156">
        <ele>711.4</ele>
        <time>2017-07-02T12:05:47Z</time>
      </trkpt>
      <trkpt lat="42.41692" lon="0.10156">
        <ele>711.6</ele>
        <time>2017-07-02T12:05:49Z</time>
      </trkpt>
      <trkpt lat="42.41696" lon="0.10154">
        <ele>711.8</ele>
        <time>2017-07-02T12:05:51Z</time>
      </trkpt>
      <trkpt lat="42.417" lon="0.10153">
        <ele>712.1</ele>
        <time>2017-07-02T12:05:53Z</time>
      </trkpt>
      <trkpt lat="42.41704" lon="0.10151">
        <ele>712.6</ele>
        <time>2017-07-02T12:05:55Z</time>
      </trkpt>
      <trkpt lat="42.41708" lon="0.10149">
        <ele>713.3</ele>
        <time>2017-07-02T12:05:57Z</time>
      </trkpt>
      <trkpt lat="42.41711" lon="0.10145">
        <ele>714</ele>
        <time>2017-07-02T12:06:00Z</time>
      </trkpt>
      <trkpt lat="42.41714" lon="0.10144">
        <ele>714.3</ele>
        <time>2017-07-02T12:06:02Z</time>
      </trkpt>
      <trkpt lat="42.41717" lon="0.10142">
        <ele>714.7</ele>
        <time>2017-07-02T12:06:04Z</time>
      </trkpt>
      <trkpt lat="42.4172" lon="0.10139">
        <ele>715.4</ele>
        <time>2017-07-02T12:06:06Z</time>
      </trkpt>
      <trkpt lat="42.41723" lon="0.10136">
        <ele>715.7</ele>
        <time>2017-07-02T12:06:08Z</time>
      </trkpt>
      <trkpt lat="42.41725" lon="0.10133">
        <ele>715.9</ele>
        <time>2017-07-02T12:06:10Z</time>
      </trkpt>
      <trkpt lat="42.41727" lon="0.10131">
        <ele>715.9</ele>
        <time>2017-07-02T12:06:12Z</time>
      </trkpt>
      <trkpt lat="42.41731" lon="0.10127">
        <ele>716</ele>
        <time>2017-07-02T12:06:14Z</time>
      </trkpt>
      <trkpt lat="42.41735" lon="0.10122">
        <ele>716.1</ele>
        <time>2017-07-02T12:06:16Z</time>
      </trkpt>
      <trkpt lat="42.41737" lon="0.1012">
        <ele>716.2</ele>
        <time>2017-07-02T12:06:17Z</time>
      </trkpt>
      <trkpt lat="42.41739" lon="0.10117">
        <ele>716.2</ele>
        <time>2017-07-02T12:06:18Z</time>
      </trkpt>
      <trkpt lat="42.41742" lon="0.10114">
        <ele>716.3</ele>
        <time>2017-07-02T12:06:19Z</time>
      </trkpt>
      <trkpt lat="42.41744" lon="0.10111">
        <ele>716.3</ele>
        <time>2017-07-02T12:06:20Z</time>
      </trkpt>
      <trkpt lat="42.41747" lon="0.10108">
        <ele>716.2</ele>
        <time>2017-07-02T12:06:21Z</time>
      </trkpt>
      <trkpt lat="42.4175" lon="0.10105">
        <ele>716.2</ele>
        <time>2017-07-02T12:06:22Z</time>
      </trkpt>
      <trkpt lat="42.41753" lon="0.10101">
        <ele>716.2</ele>
        <time>2017-07-02T12:06:23Z</time>
      </trkpt>
      <trkpt lat="42.41756" lon="0.10097">
        <ele>716.1</ele>
        <time>2017-07-02T12:06:24Z</time>
      </trkpt>
      <trkpt lat="42.41759" lon="0.10093">
        <ele>716.1</ele>
        <time>2017-07-02T12:06:25Z</time>
      </trkpt>
      <trkpt lat="42.41761" lon="0.10089">
        <ele>715.9</ele>
        <time>2017-07-02T12:06:26Z</time>
      </trkpt>
      <trkpt lat="42.41764" lon="0.10085">
        <ele>715.8</ele>
        <time>2017-07-02T12:06:27Z</time>
      </trkpt>
      <trkpt lat="42.41766" lon="0.10081">
        <ele>715.7</ele>
        <time>2017-07-02T12:06:28Z</time>
      </trkpt>
      <trkpt lat="42.41768" lon="0.10077">
        <ele>715.4</ele>
        <time>2017-07-02T12:06:29Z</time>
      </trkpt>
      <trkpt lat="42.41771" lon="0.10072">
        <ele>715</ele>
        <time>2017-07-02T12:06:30Z</time>
      </trkpt>
      <trkpt lat="42.41774" lon="0.10066">
        <ele>714.5</ele>
        <time>2017-07-02T12:06:31Z</time>
      </trkpt>
      <trkpt lat="42.41777" lon="0.1006">
        <ele>714.1</ele>
        <time>2017-07-02T12:06:32Z</time>
      </trkpt>
      <trkpt lat="42.4178" lon="0.10055">
        <ele>713.7</ele>
        <time>2017-07-02T12:06:33Z</time>
      </trkpt>
      <trkpt lat="42.41783" lon="0.10048">
        <ele>713.4</ele>
        <time>2017-07-02T12:06:34Z</time>
      </trkpt>
      <trkpt lat="42.41786" lon="0.10042">
        <ele>713.1</ele>
        <time>2017-07-02T12:06:35Z</time>
      </trkpt>
      <trkpt lat="42.41789" lon="0.10035">
        <ele>712.9</ele>
        <time>2017-07-02T12:06:36Z</time>
      </trkpt>
      <trkpt lat="42.41791" lon="0.10028">
        <ele>712.8</ele>
        <time>2017-07-02T12:06:37Z</time>
      </trkpt>
      <trkpt lat="42.41794" lon="0.10021">
        <ele>712.7</ele>
        <time>2017-07-02T12:06:38Z</time>
      </trkpt>
      <trkpt lat="42.41796" lon="0.10015">
        <ele>712.6</ele>
        <time>2017-07-02T12:06:39Z</time>
      </trkpt>
      <trkpt lat="42.41797" lon="0.10009">
        <ele>712.5</ele>
        <time>2017-07-02T12:06:40Z</time>
      </trkpt>
      <trkpt lat="42.418" lon="0.10003">
        <ele>712.4</ele>
        <time>2017-07-02T12:06:41Z</time>
      </trkpt>
      <trkpt lat="42.41802" lon="0.09997">
        <ele>712.3</ele>
        <time>2017-07-02T12:06:42Z</time>
      </trkpt>
      <trkpt lat="42.41804" lon="0.09991">
        <ele>712.2</ele>
        <time>2017-07-02T12:06:43Z</time>
      </trkpt>
      <trkpt lat="42.41806" lon="0.09985">
        <ele>712.1</ele>
        <time>2017-07-02T12:06:44Z</time>
      </trkpt>
      <trkpt lat="42.41808" lon="0.09979">
        <ele>712</ele>
        <time>2017-07-02T12:06:45Z</time>
      </trkpt>
      <trkpt lat="42.41811" lon="0.09974">
        <ele>711.9</ele>
        <time>2017-07-02T12:06:46Z</time>
      </trkpt>
      <trkpt lat="42.41813" lon="0.09968">
        <ele>711.8</ele>
        <time>2017-07-02T12:06:47Z</time>
      </trkpt>
      <trkpt lat="42.41815" lon="0.09963">
        <ele>711.6</ele>
        <time>2017-07-02T12:06:48Z</time>
      </trkpt>
      <trkpt lat="42.41817" lon="0.0996">
        <ele>711.4</ele>
        <time>2017-07-02T12:06:49Z</time>
      </trkpt>
      <trkpt lat="42.4182" lon="0.09953">
        <ele>711</ele>
        <time>2017-07-02T12:06:51Z</time>
      </trkpt>
      <trkpt lat="42.41821" lon="0.0995">
        <ele>710.7</ele>
        <time>2017-07-02T12:06:52Z</time>
      </trkpt>
      <trkpt lat="42.41823" lon="0.09946">
        <ele>710.4</ele>
        <time>2017-07-02T12:06:53Z</time>
      </trkpt>
      <trkpt lat="42.41824" lon="0.09941">
        <ele>709.9</ele>
        <time>2017-07-02T12:06:54Z</time>
      </trkpt>
      <trkpt lat="42.41824" lon="0.09937">
        <ele>709.6</ele>
        <time>2017-07-02T12:06:55Z</time>
      </trkpt>
      <trkpt lat="42.41826" lon="0.09931">
        <ele>709</ele>
        <time>2017-07-02T12:06:57Z</time>
      </trkpt>
      <trkpt lat="42.41829" lon="0.09926">
        <ele>708.6</ele>
        <time>2017-07-02T12:06:59Z</time>
      </trkpt>
      <trkpt lat="42.41832" lon="0.09921">
        <ele>708.2</ele>
        <time>2017-07-02T12:07:01Z</time>
      </trkpt>
      <trkpt lat="42.41834" lon="0.09917">
        <ele>707.9</ele>
        <time>2017-07-02T12:07:02Z</time>
      </trkpt>
      <trkpt lat="42.41837" lon="0.09913">
        <ele>707.5</ele>
        <time>2017-07-02T12:07:03Z</time>
      </trkpt>
      <trkpt lat="42.41839" lon="0.09908">
        <ele>707.2</ele>
        <time>2017-07-02T12:07:04Z</time>
      </trkpt>
      <trkpt lat="42.41841" lon="0.09903">
        <ele>706.9</ele>
        <time>2017-07-02T12:07:05Z</time>
      </trkpt>
      <trkpt lat="42.41843" lon="0.09898">
        <ele>706.6</ele>
        <time>2017-07-02T12:07:06Z</time>
      </trkpt>
      <trkpt lat="42.41844" lon="0.09893">
        <ele>706.4</ele>
        <time>2017-07-02T12:07:07Z</time>
      </trkpt>
      <trkpt lat="42.41846" lon="0.09888">
        <ele>706.1</ele>
        <time>2017-07-02T12:07:08Z</time>
      </trkpt>
      <trkpt lat="42.41847" lon="0.09883">
        <ele>705.8</ele>
        <time>2017-07-02T12:07:09Z</time>
      </trkpt>
      <trkpt lat="42.4185" lon="0.09877">
        <ele>705.5</ele>
        <time>2017-07-02T12:07:10Z</time>
      </trkpt>
      <trkpt lat="42.41852" lon="0.09871">
        <ele>705</ele>
        <time>2017-07-02T12:07:11Z</time>
      </trkpt>
      <trkpt lat="42.41855" lon="0.09865">
        <ele>704.5</ele>
        <time>2017-07-02T12:07:12Z</time>
      </trkpt>
      <trkpt lat="42.41857" lon="0.09859">
        <ele>704</ele>
        <time>2017-07-02T12:07:13Z</time>
      </trkpt>
      <trkpt lat="42.4186" lon="0.09853">
        <ele>703.5</ele>
        <time>2017-07-02T12:07:14Z</time>
      </trkpt>
      <trkpt lat="42.41862" lon="0.09847">
        <ele>703</ele>
        <time>2017-07-02T12:07:15Z</time>
      </trkpt>
      <trkpt lat="42.41863" lon="0.09842">
        <ele>702.5</ele>
        <time>2017-07-02T12:07:16Z</time>
      </trkpt>
      <trkpt lat="42.41866" lon="0.09835">
        <ele>702</ele>
        <time>2017-07-02T12:07:17Z</time>
      </trkpt>
      <trkpt lat="42.41868" lon="0.09829">
        <ele>701.4</ele>
        <time>2017-07-02T12:07:18Z</time>
      </trkpt>
      <trkpt lat="42.4187" lon="0.09822">
        <ele>700.8</ele>
        <time>2017-07-02T12:07:19Z</time>
      </trkpt>
      <trkpt lat="42.41872" lon="0.09817">
        <ele>700.4</ele>
        <time>2017-07-02T12:07:20Z</time>
      </trkpt>
      <trkpt lat="42.41874" lon="0.09812">
        <ele>699.9</ele>
        <time>2017-07-02T12:07:21Z</time>
      </trkpt>
      <trkpt lat="42.41875" lon="0.09807">
        <ele>699.5</ele>
        <time>2017-07-02T12:07:22Z</time>
      </trkpt>
      <trkpt lat="42.41877" lon="0.09802">
        <ele>699</ele>
        <time>2017-07-02T12:07:23Z</time>
      </trkpt>
      <trkpt lat="42.41877" lon="0.09797">
        <ele>698.5</ele>
        <time>2017-07-02T12:07:24Z</time>
      </trkpt>
      <trkpt lat="42.41879" lon="0.09793">
        <ele>698.1</ele>
        <time>2017-07-02T12:07:25Z</time>
      </trkpt>
      <trkpt lat="42.41881" lon="0.09789">
        <ele>697.6</ele>
        <time>2017-07-02T12:07:26Z</time>
      </trkpt>
      <trkpt lat="42.41882" lon="0.09785">
        <ele>697.2</ele>
        <time>2017-07-02T12:07:27Z</time>
      </trkpt>
      <trkpt lat="42.41884" lon="0.09782">
        <ele>696.8</ele>
        <time>2017-07-02T12:07:28Z</time>
      </trkpt>
      <trkpt lat="42.41885" lon="0.09776">
        <ele>696.4</ele>
        <time>2017-07-02T12:07:30Z</time>
      </trkpt>
      <trkpt lat="42.41886" lon="0.09773">
        <ele>696</ele>
        <time>2017-07-02T12:07:32Z</time>
      </trkpt>
      <trkpt lat="42.41887" lon="0.09769">
        <ele>695.6</ele>
        <time>2017-07-02T12:07:34Z</time>
      </trkpt>
      <trkpt lat="42.41889" lon="0.09764">
        <ele>695.1</ele>
        <time>2017-07-02T12:07:36Z</time>
      </trkpt>
      <trkpt lat="42.41891" lon="0.09758">
        <ele>694.4</ele>
        <time>2017-07-02T12:07:38Z</time>
      </trkpt>
      <trkpt lat="42.41893" lon="0.09753">
        <ele>693.9</ele>
        <time>2017-07-02T12:07:40Z</time>
      </trkpt>
      <trkpt lat="42.41895" lon="0.0975">
        <ele>693.4</ele>
        <time>2017-07-02T12:07:42Z</time>
      </trkpt>
      <trkpt lat="42.41896" lon="0.09746">
        <ele>692.9</ele>
        <time>2017-07-02T12:07:45Z</time>
      </trkpt>
      <trkpt lat="42.41896" lon="0.09741">
        <ele>692.3</ele>
        <time>2017-07-02T12:07:49Z</time>
      </trkpt>
      <trkpt lat="42.41897" lon="0.09736">
        <ele>691.8</ele>
        <time>2017-07-02T12:07:52Z</time>
      </trkpt>
      <trkpt lat="42.41899" lon="0.09731">
        <ele>691.2</ele>
        <time>2017-07-02T12:07:54Z</time>
      </trkpt>
      <trkpt lat="42.419" lon="0.09727">
        <ele>690.8</ele>
        <time>2017-07-02T12:07:55Z</time>
      </trkpt>
      <trkpt lat="42.41901" lon="0.09724">
        <ele>690.5</ele>
        <time>2017-07-02T12:07:56Z</time>
      </trkpt>
      <trkpt lat="42.41901" lon="0.09717">
        <ele>690.1</ele>
        <time>2017-07-02T12:07:58Z</time>
      </trkpt>
      <trkpt lat="42.41902" lon="0.09713">
        <ele>689.8</ele>
        <time>2017-07-02T12:07:59Z</time>
      </trkpt>
      <trkpt lat="42.41903" lon="0.09708">
        <ele>689.6</ele>
        <time>2017-07-02T12:08:00Z</time>
      </trkpt>
      <trkpt lat="42.41904" lon="0.09703">
        <ele>689.3</ele>
        <time>2017-07-02T12:08:01Z</time>
      </trkpt>
      <trkpt lat="42.41905" lon="0.09699">
        <ele>689</ele>
        <time>2017-07-02T12:08:02Z</time>
      </trkpt>
      <trkpt lat="42.41906" lon="0.09694">
        <ele>688.8</ele>
        <time>2017-07-02T12:08:03Z</time>
      </trkpt>
      <trkpt lat="42.41907" lon="0.09689">
        <ele>688.6</ele>
        <time>2017-07-02T12:08:04Z</time>
      </trkpt>
      <trkpt lat="42.41909" lon="0.09685">
        <ele>688.5</ele>
        <time>2017-07-02T12:08:05Z</time>
      </trkpt>
      <trkpt lat="42.41911" lon="0.09681">
        <ele>688.4</ele>
        <time>2017-07-02T12:08:06Z</time>
      </trkpt>
      <trkpt lat="42.41913" lon="0.09676">
        <ele>688.3</ele>
        <time>2017-07-02T12:08:07Z</time>
      </trkpt>
      <trkpt lat="42.41914" lon="0.09671">
        <ele>688.1</ele>
        <time>2017-07-02T12:08:08Z</time>
      </trkpt>
      <trkpt lat="42.41915" lon="0.09665">
        <ele>688</ele>
        <time>2017-07-02T12:08:09Z</time>
      </trkpt>
      <trkpt lat="42.41917" lon="0.0966">
        <ele>687.8</ele>
        <time>2017-07-02T12:08:10Z</time>
      </trkpt>
      <trkpt lat="42.41918" lon="0.09655">
        <ele>687.6</ele>
        <time>2017-07-02T12:08:11Z</time>
      </trkpt>
      <trkpt lat="42.41919" lon="0.0965">
        <ele>687.4</ele>
        <time>2017-07-02T12:08:12Z</time>
      </trkpt>
      <trkpt lat="42.41919" lon="0.09645">
        <ele>687.2</ele>
        <time>2017-07-02T12:08:13Z</time>
      </trkpt>
      <trkpt lat="42.4192" lon="0.0964">
        <ele>686.9</ele>
        <time>2017-07-02T12:08:14Z</time>
      </trkpt>
      <trkpt lat="42.41921" lon="0.09634">
        <ele>686.7</ele>
        <time>2017-07-02T12:08:15Z</time>
      </trkpt>
      <trkpt lat="42.41922" lon="0.09628">
        <ele>686.5</ele>
        <time>2017-07-02T12:08:16Z</time>
      </trkpt>
      <trkpt lat="42.41923" lon="0.09623">
        <ele>686.3</ele>
        <time>2017-07-02T12:08:17Z</time>
      </trkpt>
      <trkpt lat="42.41923" lon="0.09619">
        <ele>686.2</ele>
        <time>2017-07-02T12:08:18Z</time>
      </trkpt>
      <trkpt lat="42.41925" lon="0.09614">
        <ele>686.1</ele>
        <time>2017-07-02T12:08:19Z</time>
      </trkpt>
      <trkpt lat="42.41927" lon="0.09608">
        <ele>685.9</ele>
        <time>2017-07-02T12:08:20Z</time>
      </trkpt>
      <trkpt lat="42.4193" lon="0.09603">
        <ele>685.7</ele>
        <time>2017-07-02T12:08:21Z</time>
      </trkpt>
      <trkpt lat="42.41933" lon="0.09597">
        <ele>685.4</ele>
        <time>2017-07-02T12:08:22Z</time>
      </trkpt>
      <trkpt lat="42.41935" lon="0.09591">
        <ele>685</ele>
        <time>2017-07-02T12:08:23Z</time>
      </trkpt>
      <trkpt lat="42.41937" lon="0.09585">
        <ele>684.7</ele>
        <time>2017-07-02T12:08:24Z</time>
      </trkpt>
      <trkpt lat="42.41939" lon="0.0958">
        <ele>684.5</ele>
        <time>2017-07-02T12:08:25Z</time>
      </trkpt>
      <trkpt lat="42.4194" lon="0.09574">
        <ele>684.3</ele>
        <time>2017-07-02T12:08:26Z</time>
      </trkpt>
      <trkpt lat="42.41942" lon="0.09569">
        <ele>684.1</ele>
        <time>2017-07-02T12:08:27Z</time>
      </trkpt>
      <trkpt lat="42.41943" lon="0.09564">
        <ele>683.9</ele>
        <time>2017-07-02T12:08:28Z</time>
      </trkpt>
      <trkpt lat="42.41944" lon="0.09559">
        <ele>683.6</ele>
        <time>2017-07-02T12:08:29Z</time>
      </trkpt>
      <trkpt lat="42.41947" lon="0.09555">
        <ele>683.3</ele>
        <time>2017-07-02T12:08:30Z</time>
      </trkpt>
      <trkpt lat="42.41949" lon="0.09551">
        <ele>682.9</ele>
        <time>2017-07-02T12:08:31Z</time>
      </trkpt>
      <trkpt lat="42.41952" lon="0.09546">
        <ele>682.5</ele>
        <time>2017-07-02T12:08:32Z</time>
      </trkpt>
      <trkpt lat="42.41954" lon="0.0954">
        <ele>682</ele>
        <time>2017-07-02T12:08:33Z</time>
      </trkpt>
      <trkpt lat="42.41955" lon="0.09534">
        <ele>681.4</ele>
        <time>2017-07-02T12:08:34Z</time>
      </trkpt>
      <trkpt lat="42.41956" lon="0.09527">
        <ele>680.8</ele>
        <time>2017-07-02T12:08:35Z</time>
      </trkpt>
      <trkpt lat="42.41957" lon="0.09521">
        <ele>680.2</ele>
        <time>2017-07-02T12:08:36Z</time>
      </trkpt>
      <trkpt lat="42.41958" lon="0.09515">
        <ele>679.6</ele>
        <time>2017-07-02T12:08:37Z</time>
      </trkpt>
      <trkpt lat="42.41959" lon="0.09509">
        <ele>679</ele>
        <time>2017-07-02T12:08:38Z</time>
      </trkpt>
      <trkpt lat="42.41961" lon="0.09505">
        <ele>678.4</ele>
        <time>2017-07-02T12:08:39Z</time>
      </trkpt>
      <trkpt lat="42.41961" lon="0.095">
        <ele>677.7</ele>
        <time>2017-07-02T12:08:41Z</time>
      </trkpt>
      <trkpt lat="42.41964" lon="0.09501">
        <ele>676.9</ele>
        <time>2017-07-02T12:08:45Z</time>
      </trkpt>
      <trkpt lat="42.41966" lon="0.09498">
        <ele>676</ele>
        <time>2017-07-02T12:08:47Z</time>
      </trkpt>
      <trkpt lat="42.41967" lon="0.09492">
        <ele>675.1</ele>
        <time>2017-07-02T12:08:49Z</time>
      </trkpt>
      <trkpt lat="42.4197" lon="0.09489">
        <ele>674.3</ele>
        <time>2017-07-02T12:08:51Z</time>
      </trkpt>
      <trkpt lat="42.41975" lon="0.09488">
        <ele>673.8</ele>
        <time>2017-07-02T12:08:53Z</time>
      </trkpt>
      <trkpt lat="42.41978" lon="0.09487">
        <ele>673.6</ele>
        <time>2017-07-02T12:08:54Z</time>
      </trkpt>
      <trkpt lat="42.4198" lon="0.09484">
        <ele>673.4</ele>
        <time>2017-07-02T12:08:55Z</time>
      </trkpt>
      <trkpt lat="42.41983" lon="0.09481">
        <ele>673.2</ele>
        <time>2017-07-02T12:08:56Z</time>
      </trkpt>
      <trkpt lat="42.41985" lon="0.09479">
        <ele>673</ele>
        <time>2017-07-02T12:08:57Z</time>
      </trkpt>
      <trkpt lat="42.41986" lon="0.09475">
        <ele>672.9</ele>
        <time>2017-07-02T12:08:58Z</time>
      </trkpt>
      <trkpt lat="42.41988" lon="0.09472">
        <ele>672.6</ele>
        <time>2017-07-02T12:08:59Z</time>
      </trkpt>
      <trkpt lat="42.4199" lon="0.09467">
        <ele>672.2</ele>
        <time>2017-07-02T12:09:01Z</time>
      </trkpt>
      <trkpt lat="42.41991" lon="0.09462">
        <ele>671.7</ele>
        <time>2017-07-02T12:09:03Z</time>
      </trkpt>
      <trkpt lat="42.41992" lon="0.09456">
        <ele>671.2</ele>
        <time>2017-07-02T12:09:05Z</time>
      </trkpt>
      <trkpt lat="42.41992" lon="0.0945">
        <ele>670.5</ele>
        <time>2017-07-02T12:09:07Z</time>
      </trkpt>
      <trkpt lat="42.41992" lon="0.09445">
        <ele>669.8</ele>
        <time>2017-07-02T12:09:09Z</time>
      </trkpt>
      <trkpt lat="42.41992" lon="0.09439">
        <ele>669</ele>
        <time>2017-07-02T12:09:11Z</time>
      </trkpt>
      <trkpt lat="42.41991" lon="0.09433">
        <ele>668.2</ele>
        <time>2017-07-02T12:09:14Z</time>
      </trkpt>
      <trkpt lat="42.41991" lon="0.09429">
        <ele>667.6</ele>
        <time>2017-07-02T12:09:16Z</time>
      </trkpt>
      <trkpt lat="42.4199" lon="0.09425">
        <ele>666.9</ele>
        <time>2017-07-02T12:09:18Z</time>
      </trkpt>
      <trkpt lat="42.41989" lon="0.09418">
        <ele>666</ele>
        <time>2017-07-02T12:09:20Z</time>
      </trkpt>
      <trkpt lat="42.41988" lon="0.09412">
        <ele>665.2</ele>
        <time>2017-07-02T12:09:22Z</time>
      </trkpt>
      <trkpt lat="42.41987" lon="0.09408">
        <ele>664.6</ele>
        <time>2017-07-02T12:09:24Z</time>
      </trkpt>
      <trkpt lat="42.41986" lon="0.09403">
        <ele>663.8</ele>
        <time>2017-07-02T12:09:26Z</time>
      </trkpt>
      <trkpt lat="42.41985" lon="0.09399">
        <ele>663.1</ele>
        <time>2017-07-02T12:09:28Z</time>
      </trkpt>
      <trkpt lat="42.41984" lon="0.09394">
        <ele>662.2</ele>
        <time>2017-07-02T12:09:30Z</time>
      </trkpt>
      <trkpt lat="42.41984" lon="0.09389">
        <ele>661.4</ele>
        <time>2017-07-02T12:09:32Z</time>
      </trkpt>
      <trkpt lat="42.41982" lon="0.09385">
        <ele>660.7</ele>
        <time>2017-07-02T12:09:39Z</time>
      </trkpt>
      <trkpt lat="42.41979" lon="0.09384">
        <ele>660.1</ele>
        <time>2017-07-02T12:09:45Z</time>
      </trkpt>
      <trkpt lat="42.41977" lon="0.09381">
        <ele>659.4</ele>
        <time>2017-07-02T12:09:50Z</time>
      </trkpt>
      <trkpt lat="42.41976" lon="0.09378">
        <ele>658.7</ele>
        <time>2017-07-02T12:09:55Z</time>
      </trkpt>
      <trkpt lat="42.41978" lon="0.09374">
        <ele>657.8</ele>
        <time>2017-07-02T12:10:01Z</time>
      </trkpt>
      <trkpt lat="42.41981" lon="0.09375">
        <ele>656.8</ele>
        <time>2017-07-02T12:10:09Z</time>
      </trkpt>
      <trkpt lat="42.41984" lon="0.09373">
        <ele>655.7</ele>
        <time>2017-07-02T12:10:14Z</time>
      </trkpt>
      <trkpt lat="42.41986" lon="0.09375">
        <ele>654.7</ele>
        <time>2017-07-02T12:10:16Z</time>
      </trkpt>
      <trkpt lat="42.4199" lon="0.09378">
        <ele>652.9</ele>
        <time>2017-07-02T12:10:18Z</time>
      </trkpt>
      <trkpt lat="42.41992" lon="0.0938">
        <ele>652.4</ele>
        <time>2017-07-02T12:10:19Z</time>
      </trkpt>
      <trkpt lat="42.41995" lon="0.09382">
        <ele>651.9</ele>
        <time>2017-07-02T12:10:20Z</time>
      </trkpt>
      <trkpt lat="42.41999" lon="0.09387">
        <ele>650.7</ele>
        <time>2017-07-02T12:10:22Z</time>
      </trkpt>
      <trkpt lat="42.42001" lon="0.09389">
        <ele>650.4</ele>
        <time>2017-07-02T12:10:23Z</time>
      </trkpt>
      <trkpt lat="42.42004" lon="0.09391">
        <ele>650.2</ele>
        <time>2017-07-02T12:10:24Z</time>
      </trkpt>
      <trkpt lat="42.42007" lon="0.09393">
        <ele>649.8</ele>
        <time>2017-07-02T12:10:25Z</time>
      </trkpt>
      <trkpt lat="42.42011" lon="0.09395">
        <ele>649.2</ele>
        <time>2017-07-02T12:10:26Z</time>
      </trkpt>
      <trkpt lat="42.42015" lon="0.09398">
        <ele>648.9</ele>
        <time>2017-07-02T12:10:27Z</time>
      </trkpt>
      <trkpt lat="42.42019" lon="0.09401">
        <ele>648.7</ele>
        <time>2017-07-02T12:10:28Z</time>
      </trkpt>
      <trkpt lat="42.42022" lon="0.09405">
        <ele>648.6</ele>
        <time>2017-07-02T12:10:29Z</time>
      </trkpt>
      <trkpt lat="42.42025" lon="0.09409">
        <ele>648.5</ele>
        <time>2017-07-02T12:10:30Z</time>
      </trkpt>
      <trkpt lat="42.42028" lon="0.09414">
        <ele>648.4</ele>
        <time>2017-07-02T12:10:31Z</time>
      </trkpt>
      <trkpt lat="42.42031" lon="0.09418">
        <ele>648.3</ele>
        <time>2017-07-02T12:10:32Z</time>
      </trkpt>
      <trkpt lat="42.42034" lon="0.09422">
        <ele>648.2</ele>
        <time>2017-07-02T12:10:33Z</time>
      </trkpt>
      <trkpt lat="42.42037" lon="0.09425">
        <ele>648.2</ele>
        <time>2017-07-02T12:10:34Z</time>
      </trkpt>
      <trkpt lat="42.4204" lon="0.09429">
        <ele>648</ele>
        <time>2017-07-02T12:10:36Z</time>
      </trkpt>
      <trkpt lat="42.42044" lon="0.0943">
        <ele>648</ele>
        <time>2017-07-02T12:10:38Z</time>
      </trkpt>
      <trkpt lat="42.4205" lon="0.09425">
        <ele>647.8</ele>
        <time>2017-07-02T12:10:40Z</time>
      </trkpt>
      <trkpt lat="42.42052" lon="0.09421">
        <ele>647.7</ele>
        <time>2017-07-02T12:10:41Z</time>
      </trkpt>
      <trkpt lat="42.42054" lon="0.09416">
        <ele>647.6</ele>
        <time>2017-07-02T12:10:42Z</time>
      </trkpt>
      <trkpt lat="42.42057" lon="0.09412">
        <ele>647.5</ele>
        <time>2017-07-02T12:10:43Z</time>
      </trkpt>
      <trkpt lat="42.4206" lon="0.09407">
        <ele>647.4</ele>
        <time>2017-07-02T12:10:44Z</time>
      </trkpt>
      <trkpt lat="42.42063" lon="0.09403">
        <ele>647.4</ele>
        <time>2017-07-02T12:10:45Z</time>
      </trkpt>
      <trkpt lat="42.42068" lon="0.094">
        <ele>647.5</ele>
        <time>2017-07-02T12:10:46Z</time>
      </trkpt>
      <trkpt lat="42.42072" lon="0.09397">
        <ele>647.5</ele>
        <time>2017-07-02T12:10:47Z</time>
      </trkpt>
      <trkpt lat="42.42077" lon="0.09393">
        <ele>647.5</ele>
        <time>2017-07-02T12:10:48Z</time>
      </trkpt>
      <trkpt lat="42.42082" lon="0.09389">
        <ele>647.6</ele>
        <time>2017-07-02T12:10:49Z</time>
      </trkpt>
      <trkpt lat="42.42086" lon="0.09385">
        <ele>647.6</ele>
        <time>2017-07-02T12:10:50Z</time>
      </trkpt>
      <trkpt lat="42.42091" lon="0.0938">
        <ele>647.7</ele>
        <time>2017-07-02T12:10:51Z</time>
      </trkpt>
      <trkpt lat="42.42095" lon="0.09374">
        <ele>647.8</ele>
        <time>2017-07-02T12:10:52Z</time>
      </trkpt>
      <trkpt lat="42.42098" lon="0.09369">
        <ele>647.8</ele>
        <time>2017-07-02T12:10:53Z</time>
      </trkpt>
      <trkpt lat="42.42101" lon="0.09363">
        <ele>647.9</ele>
        <time>2017-07-02T12:10:54Z</time>
      </trkpt>
      <trkpt lat="42.42104" lon="0.09354">
        <ele>647.7</ele>
        <time>2017-07-02T12:10:55Z</time>
      </trkpt>
      <trkpt lat="42.42105" lon="0.09347">
        <ele>647.5</ele>
        <time>2017-07-02T12:10:56Z</time>
      </trkpt>
      <trkpt lat="42.42106" lon="0.09341">
        <ele>647.4</ele>
        <time>2017-07-02T12:10:57Z</time>
      </trkpt>
      <trkpt lat="42.4211" lon="0.09335">
        <ele>647.2</ele>
        <time>2017-07-02T12:10:58Z</time>
      </trkpt>
      <trkpt lat="42.42113" lon="0.09329">
        <ele>647</ele>
        <time>2017-07-02T12:10:59Z</time>
      </trkpt>
      <trkpt lat="42.42116" lon="0.09324">
        <ele>646.8</ele>
        <time>2017-07-02T12:11:00Z</time>
      </trkpt>
      <trkpt lat="42.4212" lon="0.09319">
        <ele>646.4</ele>
        <time>2017-07-02T12:11:01Z</time>
      </trkpt>
      <trkpt lat="42.42124" lon="0.09314">
        <ele>645.7</ele>
        <time>2017-07-02T12:11:02Z</time>
      </trkpt>
      <trkpt lat="42.42128" lon="0.0931">
        <ele>645.2</ele>
        <time>2017-07-02T12:11:03Z</time>
      </trkpt>
      <trkpt lat="42.4213" lon="0.09305">
        <ele>644.7</ele>
        <time>2017-07-02T12:11:04Z</time>
      </trkpt>
      <trkpt lat="42.42133" lon="0.09301">
        <ele>644.2</ele>
        <time>2017-07-02T12:11:05Z</time>
      </trkpt>
      <trkpt lat="42.42138" lon="0.09297">
        <ele>643.5</ele>
        <time>2017-07-02T12:11:06Z</time>
      </trkpt>
      <trkpt lat="42.42144" lon="0.09294">
        <ele>642.9</ele>
        <time>2017-07-02T12:11:07Z</time>
      </trkpt>
      <trkpt lat="42.4215" lon="0.09288">
        <ele>642.4</ele>
        <time>2017-07-02T12:11:08Z</time>
      </trkpt>
      <trkpt lat="42.42156" lon="0.09283">
        <ele>641.7</ele>
        <time>2017-07-02T12:11:09Z</time>
      </trkpt>
      <trkpt lat="42.42164" lon="0.09279">
        <ele>641.1</ele>
        <time>2017-07-02T12:11:10Z</time>
      </trkpt>
      <trkpt lat="42.42173" lon="0.09276">
        <ele>640.6</ele>
        <time>2017-07-02T12:11:11Z</time>
      </trkpt>
      <trkpt lat="42.4218" lon="0.0927">
        <ele>640.3</ele>
        <time>2017-07-02T12:11:12Z</time>
      </trkpt>
      <trkpt lat="42.42187" lon="0.09267">
        <ele>640</ele>
        <time>2017-07-02T12:11:13Z</time>
      </trkpt>
      <trkpt lat="42.42194" lon="0.09262">
        <ele>639.8</ele>
        <time>2017-07-02T12:11:14Z</time>
      </trkpt>
      <trkpt lat="42.422" lon="0.09257">
        <ele>639.7</ele>
        <time>2017-07-02T12:11:15Z</time>
      </trkpt>
      <trkpt lat="42.42207" lon="0.09254">
        <ele>639.6</ele>
        <time>2017-07-02T12:11:16Z</time>
      </trkpt>
      <trkpt lat="42.42214" lon="0.0925">
        <ele>639.5</ele>
        <time>2017-07-02T12:11:17Z</time>
      </trkpt>
      <trkpt lat="42.42221" lon="0.09246">
        <ele>639.3</ele>
        <time>2017-07-02T12:11:18Z</time>
      </trkpt>
      <trkpt lat="42.42228" lon="0.09241">
        <ele>639.1</ele>
        <time>2017-07-02T12:11:19Z</time>
      </trkpt>
      <trkpt lat="42.42233" lon="0.09236">
        <ele>638.9</ele>
        <time>2017-07-02T12:11:20Z</time>
      </trkpt>
      <trkpt lat="42.4224" lon="0.09232">
        <ele>638.7</ele>
        <time>2017-07-02T12:11:21Z</time>
      </trkpt>
      <trkpt lat="42.42246" lon="0.09228">
        <ele>638.6</ele>
        <time>2017-07-02T12:11:22Z</time>
      </trkpt>
      <trkpt lat="42.42252" lon="0.09223">
        <ele>638.4</ele>
        <time>2017-07-02T12:11:23Z</time>
      </trkpt>
      <trkpt lat="42.42257" lon="0.09218">
        <ele>638.3</ele>
        <time>2017-07-02T12:11:24Z</time>
      </trkpt>
      <trkpt lat="42.42262" lon="0.09214">
        <ele>638.2</ele>
        <time>2017-07-02T12:11:25Z</time>
      </trkpt>
      <trkpt lat="42.42268" lon="0.0921">
        <ele>638.1</ele>
        <time>2017-07-02T12:11:26Z</time>
      </trkpt>
      <trkpt lat="42.42274" lon="0.09208">
        <ele>638</ele>
        <time>2017-07-02T12:11:27Z</time>
      </trkpt>
      <trkpt lat="42.42279" lon="0.09205">
        <ele>637.9</ele>
        <time>2017-07-02T12:11:28Z</time>
      </trkpt>
      <trkpt lat="42.42285" lon="0.09202">
        <ele>637.8</ele>
        <time>2017-07-02T12:11:29Z</time>
      </trkpt>
      <trkpt lat="42.42291" lon="0.09199">
        <ele>637.8</ele>
        <time>2017-07-02T12:11:30Z</time>
      </trkpt>
      <trkpt lat="42.42297" lon="0.09196">
        <ele>637.8</ele>
        <time>2017-07-02T12:11:31Z</time>
      </trkpt>
      <trkpt lat="42.42303" lon="0.09194">
        <ele>637.8</ele>
        <time>2017-07-02T12:11:32Z</time>
      </trkpt>
      <trkpt lat="42.42308" lon="0.09192">
        <ele>637.8</ele>
        <time>2017-07-02T12:11:33Z</time>
      </trkpt>
      <trkpt lat="42.42313" lon="0.0919">
        <ele>637.8</ele>
        <time>2017-07-02T12:11:34Z</time>
      </trkpt>
      <trkpt lat="42.42317" lon="0.09189">
        <ele>637.8</ele>
        <time>2017-07-02T12:11:35Z</time>
      </trkpt>
      <trkpt lat="42.42321" lon="0.09189">
        <ele>637.8</ele>
        <time>2017-07-02T12:11:36Z</time>
      </trkpt>
      <trkpt lat="42.42325" lon="0.09189">
        <ele>637.8</ele>
        <time>2017-07-02T12:11:38Z</time>
      </trkpt>
      <trkpt lat="42.42329" lon="0.0919">
        <ele>637.7</ele>
        <time>2017-07-02T12:11:40Z</time>
      </trkpt>
      <trkpt lat="42.42332" lon="0.09191">
        <ele>637.7</ele>
        <time>2017-07-02T12:11:42Z</time>
      </trkpt>
      <trkpt lat="42.42334" lon="0.09192">
        <ele>637.6</ele>
        <time>2017-07-02T12:11:44Z</time>
      </trkpt>
      <trkpt lat="42.42337" lon="0.09194">
        <ele>637.6</ele>
        <time>2017-07-02T12:11:46Z</time>
      </trkpt>
      <trkpt lat="42.4234" lon="0.09195">
        <ele>637.5</ele>
        <time>2017-07-02T12:11:48Z</time>
      </trkpt>
      <trkpt lat="42.42343" lon="0.09195">
        <ele>637.4</ele>
        <time>2017-07-02T12:11:50Z</time>
      </trkpt>
      <trkpt lat="42.42346" lon="0.09192">
        <ele>637.3</ele>
        <time>2017-07-02T12:11:52Z</time>
      </trkpt>
      <trkpt lat="42.42349" lon="0.09188">
        <ele>637.2</ele>
        <time>2017-07-02T12:11:54Z</time>
      </trkpt>
      <trkpt lat="42.42351" lon="0.09185">
        <ele>637</ele>
        <time>2017-07-02T12:11:55Z</time>
      </trkpt>
      <trkpt lat="42.42354" lon="0.09182">
        <ele>636.8</ele>
        <time>2017-07-02T12:11:56Z</time>
      </trkpt>
      <trkpt lat="42.42358" lon="0.09179">
        <ele>636.6</ele>
        <time>2017-07-02T12:11:57Z</time>
      </trkpt>
      <trkpt lat="42.42362" lon="0.09177">
        <ele>636.4</ele>
        <time>2017-07-02T12:11:58Z</time>
      </trkpt>
      <trkpt lat="42.42367" lon="0.09175">
        <ele>636.2</ele>
        <time>2017-07-02T12:11:59Z</time>
      </trkpt>
      <trkpt lat="42.42372" lon="0.09173">
        <ele>636</ele>
        <time>2017-07-02T12:12:00Z</time>
      </trkpt>
      <trkpt lat="42.42378" lon="0.09171">
        <ele>635.8</ele>
        <time>2017-07-02T12:12:01Z</time>
      </trkpt>
      <trkpt lat="42.42383" lon="0.09169">
        <ele>635.5</ele>
        <time>2017-07-02T12:12:02Z</time>
      </trkpt>
      <trkpt lat="42.42389" lon="0.09166">
        <ele>635.4</ele>
        <time>2017-07-02T12:12:03Z</time>
      </trkpt>
      <trkpt lat="42.42394" lon="0.09164">
        <ele>635.2</ele>
        <time>2017-07-02T12:12:04Z</time>
      </trkpt>
      <trkpt lat="42.424" lon="0.09161">
        <ele>635</ele>
        <time>2017-07-02T12:12:05Z</time>
      </trkpt>
      <trkpt lat="42.42405" lon="0.09158">
        <ele>634.8</ele>
        <time>2017-07-02T12:12:06Z</time>
      </trkpt>
      <trkpt lat="42.42411" lon="0.09155">
        <ele>634.6</ele>
        <time>2017-07-02T12:12:07Z</time>
      </trkpt>
      <trkpt lat="42.42416" lon="0.09152">
        <ele>634.6</ele>
        <time>2017-07-02T12:12:08Z</time>
      </trkpt>
      <trkpt lat="42.42421" lon="0.09149">
        <ele>634.5</ele>
        <time>2017-07-02T12:12:09Z</time>
      </trkpt>
      <trkpt lat="42.42427" lon="0.09145">
        <ele>634.5</ele>
        <time>2017-07-02T12:12:10Z</time>
      </trkpt>
      <trkpt lat="42.42432" lon="0.09142">
        <ele>634.4</ele>
        <time>2017-07-02T12:12:11Z</time>
      </trkpt>
      <trkpt lat="42.42438" lon="0.09138">
        <ele>634.4</ele>
        <time>2017-07-02T12:12:12Z</time>
      </trkpt>
      <trkpt lat="42.42443" lon="0.09134">
        <ele>634.4</ele>
        <time>2017-07-02T12:12:13Z</time>
      </trkpt>
      <trkpt lat="42.42448" lon="0.09131">
        <ele>634.4</ele>
        <time>2017-07-02T12:12:14Z</time>
      </trkpt>
      <trkpt lat="42.42453" lon="0.09127">
        <ele>634.4</ele>
        <time>2017-07-02T12:12:15Z</time>
      </trkpt>
      <trkpt lat="42.42458" lon="0.09125">
        <ele>634.3</ele>
        <time>2017-07-02T12:12:16Z</time>
      </trkpt>
      <trkpt lat="42.42464" lon="0.09122">
        <ele>634.3</ele>
        <time>2017-07-02T12:12:17Z</time>
      </trkpt>
      <trkpt lat="42.42468" lon="0.09118">
        <ele>634.4</ele>
        <time>2017-07-02T12:12:18Z</time>
      </trkpt>
      <trkpt lat="42.42473" lon="0.09115">
        <ele>634.4</ele>
        <time>2017-07-02T12:12:19Z</time>
      </trkpt>
      <trkpt lat="42.42478" lon="0.09112">
        <ele>634.4</ele>
        <time>2017-07-02T12:12:20Z</time>
      </trkpt>
      <trkpt lat="42.42483" lon="0.0911">
        <ele>634.4</ele>
        <time>2017-07-02T12:12:21Z</time>
      </trkpt>
      <trkpt lat="42.42487" lon="0.09107">
        <ele>634.4</ele>
        <time>2017-07-02T12:12:22Z</time>
      </trkpt>
      <trkpt lat="42.42491" lon="0.09105">
        <ele>634.4</ele>
        <time>2017-07-02T12:12:23Z</time>
      </trkpt>
      <trkpt lat="42.42495" lon="0.09103">
        <ele>634.3</ele>
        <time>2017-07-02T12:12:24Z</time>
      </trkpt>
      <trkpt lat="42.42499" lon="0.09102">
        <ele>634.3</ele>
        <time>2017-07-02T12:12:25Z</time>
      </trkpt>
      <trkpt lat="42.42503" lon="0.091">
        <ele>634.3</ele>
        <time>2017-07-02T12:12:27Z</time>
      </trkpt>
      <trkpt lat="42.42509" lon="0.09099">
        <ele>634.2</ele>
        <time>2017-07-02T12:12:29Z</time>
      </trkpt>
      <trkpt lat="42.42513" lon="0.09098">
        <ele>634.1</ele>
        <time>2017-07-02T12:12:30Z</time>
      </trkpt>
      <trkpt lat="42.42516" lon="0.09097">
        <ele>634</ele>
        <time>2017-07-02T12:12:31Z</time>
      </trkpt>
      <trkpt lat="42.4252" lon="0.09096">
        <ele>634</ele>
        <time>2017-07-02T12:12:32Z</time>
      </trkpt>
      <trkpt lat="42.42524" lon="0.09094">
        <ele>633.9</ele>
        <time>2017-07-02T12:12:33Z</time>
      </trkpt>
      <trkpt lat="42.42528" lon="0.09092">
        <ele>633.8</ele>
        <time>2017-07-02T12:12:34Z</time>
      </trkpt>
      <trkpt lat="42.42531" lon="0.0909">
        <ele>633.8</ele>
        <time>2017-07-02T12:12:35Z</time>
      </trkpt>
      <trkpt lat="42.42534" lon="0.09088">
        <ele>633.7</ele>
        <time>2017-07-02T12:12:36Z</time>
      </trkpt>
      <trkpt lat="42.42537" lon="0.09086">
        <ele>633.7</ele>
        <time>2017-07-02T12:12:37Z</time>
      </trkpt>
      <trkpt lat="42.4254" lon="0.09084">
        <ele>633.7</ele>
        <time>2017-07-02T12:12:38Z</time>
      </trkpt>
      <trkpt lat="42.42543" lon="0.09081">
        <ele>633.6</ele>
        <time>2017-07-02T12:12:39Z</time>
      </trkpt>
      <trkpt lat="42.42547" lon="0.09079">
        <ele>633.6</ele>
        <time>2017-07-02T12:12:40Z</time>
      </trkpt>
      <trkpt lat="42.4255" lon="0.09076">
        <ele>633.5</ele>
        <time>2017-07-02T12:12:41Z</time>
      </trkpt>
      <trkpt lat="42.42554" lon="0.09074">
        <ele>633.4</ele>
        <time>2017-07-02T12:12:42Z</time>
      </trkpt>
      <trkpt lat="42.42559" lon="0.09073">
        <ele>633.2</ele>
        <time>2017-07-02T12:12:43Z</time>
      </trkpt>
      <trkpt lat="42.42563" lon="0.0907">
        <ele>633.1</ele>
        <time>2017-07-02T12:12:44Z</time>
      </trkpt>
      <trkpt lat="42.42568" lon="0.09068">
        <ele>632.8</ele>
        <time>2017-07-02T12:12:45Z</time>
      </trkpt>
      <trkpt lat="42.42573" lon="0.09065">
        <ele>632.5</ele>
        <time>2017-07-02T12:12:46Z</time>
      </trkpt>
      <trkpt lat="42.42577" lon="0.09064">
        <ele>632.3</ele>
        <time>2017-07-02T12:12:47Z</time>
      </trkpt>
      <trkpt lat="42.42582" lon="0.0906">
        <ele>631.8</ele>
        <time>2017-07-02T12:12:48Z</time>
      </trkpt>
      <trkpt lat="42.42588" lon="0.09051">
        <ele>631.4</ele>
        <time>2017-07-02T12:12:50Z</time>
      </trkpt>
      <trkpt lat="42.42596" lon="0.09046">
        <ele>631.1</ele>
        <time>2017-07-02T12:12:51Z</time>
      </trkpt>
      <trkpt lat="42.42599" lon="0.09045">
        <ele>630.9</ele>
        <time>2017-07-02T12:12:52Z</time>
      </trkpt>
      <trkpt lat="42.42605" lon="0.09041">
        <ele>630.7</ele>
        <time>2017-07-02T12:12:53Z</time>
      </trkpt>
      <trkpt lat="42.42612" lon="0.09038">
        <ele>630.3</ele>
        <time>2017-07-02T12:12:54Z</time>
      </trkpt>
      <trkpt lat="42.42616" lon="0.09035">
        <ele>630.1</ele>
        <time>2017-07-02T12:12:55Z</time>
      </trkpt>
      <trkpt lat="42.42623" lon="0.09035">
        <ele>629.8</ele>
        <time>2017-07-02T12:12:56Z</time>
      </trkpt>
      <trkpt lat="42.42628" lon="0.09032">
        <ele>629.7</ele>
        <time>2017-07-02T12:12:57Z</time>
      </trkpt>
      <trkpt lat="42.42632" lon="0.09025">
        <ele>629.6</ele>
        <time>2017-07-02T12:12:58Z</time>
      </trkpt>
      <trkpt lat="42.42636" lon="0.09021">
        <ele>629.5</ele>
        <time>2017-07-02T12:12:59Z</time>
      </trkpt>
      <trkpt lat="42.42641" lon="0.09017">
        <ele>629.4</ele>
        <time>2017-07-02T12:13:00Z</time>
      </trkpt>
      <trkpt lat="42.42645" lon="0.09016">
        <ele>629.4</ele>
        <time>2017-07-02T12:13:01Z</time>
      </trkpt>
      <trkpt lat="42.42649" lon="0.09015">
        <ele>629.3</ele>
        <time>2017-07-02T12:13:02Z</time>
      </trkpt>
      <trkpt lat="42.42652" lon="0.09011">
        <ele>629.3</ele>
        <time>2017-07-02T12:13:03Z</time>
      </trkpt>
      <trkpt lat="42.42652" lon="0.09005">
        <ele>629.2</ele>
        <time>2017-07-02T12:13:04Z</time>
      </trkpt>
      <trkpt lat="42.42654" lon="0.09002">
        <ele>629.2</ele>
        <time>2017-07-02T12:13:05Z</time>
      </trkpt>
      <trkpt lat="42.42658" lon="0.09">
        <ele>629.2</ele>
        <time>2017-07-02T12:13:06Z</time>
      </trkpt>
      <trkpt lat="42.42663" lon="0.09001">
        <ele>629.1</ele>
        <time>2017-07-02T12:13:07Z</time>
      </trkpt>
      <trkpt lat="42.42667" lon="0.09003">
        <ele>629.1</ele>
        <time>2017-07-02T12:13:08Z</time>
      </trkpt>
      <trkpt lat="42.4267" lon="0.09002">
        <ele>629.1</ele>
        <time>2017-07-02T12:13:09Z</time>
      </trkpt>
      <trkpt lat="42.42674" lon="0.08999">
        <ele>629</ele>
        <time>2017-07-02T12:13:10Z</time>
      </trkpt>
      <trkpt lat="42.42677" lon="0.08994">
        <ele>628.9</ele>
        <time>2017-07-02T12:13:11Z</time>
      </trkpt>
      <trkpt lat="42.4268" lon="0.08991">
        <ele>628.9</ele>
        <time>2017-07-02T12:13:12Z</time>
      </trkpt>
      <trkpt lat="42.42683" lon="0.08988">
        <ele>628.8</ele>
        <time>2017-07-02T12:13:13Z</time>
      </trkpt>
      <trkpt lat="42.42687" lon="0.08985">
        <ele>628.8</ele>
        <time>2017-07-02T12:13:14Z</time>
      </trkpt>
      <trkpt lat="42.4269" lon="0.08982">
        <ele>628.7</ele>
        <time>2017-07-02T12:13:15Z</time>
      </trkpt>
      <trkpt lat="42.42694" lon="0.08978">
        <ele>628.6</ele>
        <time>2017-07-02T12:13:16Z</time>
      </trkpt>
      <trkpt lat="42.42697" lon="0.08975">
        <ele>628.5</ele>
        <time>2017-07-02T12:13:17Z</time>
      </trkpt>
      <trkpt lat="42.42699" lon="0.08971">
        <ele>628.5</ele>
        <time>2017-07-02T12:13:18Z</time>
      </trkpt>
      <trkpt lat="42.42702" lon="0.08967">
        <ele>628.4</ele>
        <time>2017-07-02T12:13:19Z</time>
      </trkpt>
      <trkpt lat="42.42705" lon="0.08962">
        <ele>628.3</ele>
        <time>2017-07-02T12:13:20Z</time>
      </trkpt>
      <trkpt lat="42.42706" lon="0.08959">
        <ele>628.2</ele>
        <time>2017-07-02T12:13:21Z</time>
      </trkpt>
      <trkpt lat="42.42707" lon="0.08955">
        <ele>628.1</ele>
        <time>2017-07-02T12:13:27Z</time>
      </trkpt>
      <trkpt lat="42.42709" lon="0.08952">
        <ele>628</ele>
        <time>2017-07-02T12:13:38Z</time>
      </trkpt>
      <trkpt lat="42.42712" lon="0.08951">
        <ele>627.9</ele>
        <time>2017-07-02T12:13:42Z</time>
      </trkpt>
      <trkpt lat="42.42715" lon="0.0895">
        <ele>627.8</ele>
        <time>2017-07-02T12:13:44Z</time>
      </trkpt>
      <trkpt lat="42.42719" lon="0.08946">
        <ele>627.6</ele>
        <time>2017-07-02T12:13:46Z</time>
      </trkpt>
      <trkpt lat="42.42722" lon="0.0894">
        <ele>627.4</ele>
        <time>2017-07-02T12:13:48Z</time>
      </trkpt>
      <trkpt lat="42.42723" lon="0.08936">
        <ele>627.2</ele>
        <time>2017-07-02T12:13:49Z</time>
      </trkpt>
      <trkpt lat="42.42724" lon="0.08933">
        <ele>627.1</ele>
        <time>2017-07-02T12:13:50Z</time>
      </trkpt>
      <trkpt lat="42.42724" lon="0.08929">
        <ele>626.9</ele>
        <time>2017-07-02T12:13:51Z</time>
      </trkpt>
      <trkpt lat="42.42725" lon="0.08922">
        <ele>626.6</ele>
        <time>2017-07-02T12:13:53Z</time>
      </trkpt>
      <trkpt lat="42.42727" lon="0.08917">
        <ele>626.2</ele>
        <time>2017-07-02T12:13:55Z</time>
      </trkpt>
      <trkpt lat="42.42728" lon="0.08909">
        <ele>625.7</ele>
        <time>2017-07-02T12:13:57Z</time>
      </trkpt>
      <trkpt lat="42.4273" lon="0.08904">
        <ele>625.3</ele>
        <time>2017-07-02T12:13:58Z</time>
      </trkpt>
      <trkpt lat="42.42731" lon="0.08898">
        <ele>624.9</ele>
        <time>2017-07-02T12:13:59Z</time>
      </trkpt>
      <trkpt lat="42.42732" lon="0.08893">
        <ele>624.5</ele>
        <time>2017-07-02T12:14:00Z</time>
      </trkpt>
      <trkpt lat="42.42734" lon="0.08888">
        <ele>624.1</ele>
        <time>2017-07-02T12:14:01Z</time>
      </trkpt>
      <trkpt lat="42.42735" lon="0.08883">
        <ele>623.7</ele>
        <time>2017-07-02T12:14:02Z</time>
      </trkpt>
      <trkpt lat="42.42736" lon="0.08879">
        <ele>623.1</ele>
        <time>2017-07-02T12:14:03Z</time>
      </trkpt>
      <trkpt lat="42.42737" lon="0.08875">
        <ele>622.7</ele>
        <time>2017-07-02T12:14:04Z</time>
      </trkpt>
      <trkpt lat="42.42738" lon="0.08871">
        <ele>622.2</ele>
        <time>2017-07-02T12:14:05Z</time>
      </trkpt>
      <trkpt lat="42.42738" lon="0.08867">
        <ele>621.7</ele>
        <time>2017-07-02T12:14:06Z</time>
      </trkpt>
      <trkpt lat="42.42737" lon="0.08863">
        <ele>621.3</ele>
        <time>2017-07-02T12:14:07Z</time>
      </trkpt>
      <trkpt lat="42.42737" lon="0.08858">
        <ele>620.8</ele>
        <time>2017-07-02T12:14:08Z</time>
      </trkpt>
      <trkpt lat="42.42736" lon="0.08853">
        <ele>620.3</ele>
        <time>2017-07-02T12:14:09Z</time>
      </trkpt>
      <trkpt lat="42.42735" lon="0.08849">
        <ele>619.7</ele>
        <time>2017-07-02T12:14:10Z</time>
      </trkpt>
      <trkpt lat="42.42734" lon="0.08844">
        <ele>619.2</ele>
        <time>2017-07-02T12:14:11Z</time>
      </trkpt>
      <trkpt lat="42.42733" lon="0.0884">
        <ele>618.6</ele>
        <time>2017-07-02T12:14:12Z</time>
      </trkpt>
      <trkpt lat="42.42732" lon="0.08835">
        <ele>618</ele>
        <time>2017-07-02T12:14:13Z</time>
      </trkpt>
      <trkpt lat="42.4273" lon="0.0883">
        <ele>617.3</ele>
        <time>2017-07-02T12:14:14Z</time>
      </trkpt>
      <trkpt lat="42.42728" lon="0.08825">
        <ele>616.6</ele>
        <time>2017-07-02T12:14:15Z</time>
      </trkpt>
      <trkpt lat="42.42725" lon="0.08821">
        <ele>615.9</ele>
        <time>2017-07-02T12:14:16Z</time>
      </trkpt>
      <trkpt lat="42.42723" lon="0.08816">
        <ele>615</ele>
        <time>2017-07-02T12:14:17Z</time>
      </trkpt>
      <trkpt lat="42.42718" lon="0.08806">
        <ele>613.6</ele>
        <time>2017-07-02T12:14:18Z</time>
      </trkpt>
      <trkpt lat="42.42717" lon="0.08799">
        <ele>612.7</ele>
        <time>2017-07-02T12:14:19Z</time>
      </trkpt>
      <trkpt lat="42.42714" lon="0.0879">
        <ele>611.1</ele>
        <time>2017-07-02T12:14:20Z</time>
      </trkpt>
      <trkpt lat="42.42716" lon="0.08787">
        <ele>610.5</ele>
        <time>2017-07-02T12:14:21Z</time>
      </trkpt>
      <trkpt lat="42.42713" lon="0.08784">
        <ele>609.6</ele>
        <time>2017-07-02T12:14:22Z</time>
      </trkpt>
      <trkpt lat="42.42709" lon="0.08777">
        <ele>608.6</ele>
        <time>2017-07-02T12:14:23Z</time>
      </trkpt>
      <trkpt lat="42.42707" lon="0.08768">
        <ele>607.7</ele>
        <time>2017-07-02T12:14:24Z</time>
      </trkpt>
      <trkpt lat="42.4271" lon="0.08761">
        <ele>606.7</ele>
        <time>2017-07-02T12:14:25Z</time>
      </trkpt>
      <trkpt lat="42.42706" lon="0.08753">
        <ele>605.6</ele>
        <time>2017-07-02T12:14:26Z</time>
      </trkpt>
      <trkpt lat="42.42706" lon="0.08745">
        <ele>604.8</ele>
        <time>2017-07-02T12:14:27Z</time>
      </trkpt>
      <trkpt lat="42.42704" lon="0.08737">
        <ele>603.9</ele>
        <time>2017-07-02T12:14:28Z</time>
      </trkpt>
      <trkpt lat="42.42703" lon="0.08731">
        <ele>603.3</ele>
        <time>2017-07-02T12:14:29Z</time>
      </trkpt>
      <trkpt lat="42.42705" lon="0.08722">
        <ele>602.4</ele>
        <time>2017-07-02T12:14:30Z</time>
      </trkpt>
      <trkpt lat="42.42707" lon="0.08714">
        <ele>601.7</ele>
        <time>2017-07-02T12:14:31Z</time>
      </trkpt>
      <trkpt lat="42.42711" lon="0.08708">
        <ele>601.2</ele>
        <time>2017-07-02T12:14:32Z</time>
      </trkpt>
      <trkpt lat="42.42715" lon="0.087">
        <ele>600.8</ele>
        <time>2017-07-02T12:14:33Z</time>
      </trkpt>
      <trkpt lat="42.42714" lon="0.0869">
        <ele>600.4</ele>
        <time>2017-07-02T12:14:34Z</time>
      </trkpt>
      <trkpt lat="42.42718" lon="0.08681">
        <ele>600</ele>
        <time>2017-07-02T12:14:35Z</time>
      </trkpt>
      <trkpt lat="42.42722" lon="0.08676">
        <ele>599.7</ele>
        <time>2017-07-02T12:14:36Z</time>
      </trkpt>
      <trkpt lat="42.42726" lon="0.0867">
        <ele>599.4</ele>
        <time>2017-07-02T12:14:37Z</time>
      </trkpt>
      <trkpt lat="42.42731" lon="0.08665">
        <ele>599.2</ele>
        <time>2017-07-02T12:14:38Z</time>
      </trkpt>
      <trkpt lat="42.42736" lon="0.0866">
        <ele>599</ele>
        <time>2017-07-02T12:14:39Z</time>
      </trkpt>
      <trkpt lat="42.42741" lon="0.08656">
        <ele>598.8</ele>
        <time>2017-07-02T12:14:40Z</time>
      </trkpt>
      <trkpt lat="42.42745" lon="0.0865">
        <ele>598.6</ele>
        <time>2017-07-02T12:14:41Z</time>
      </trkpt>
      <trkpt lat="42.42749" lon="0.08645">
        <ele>598.3</ele>
        <time>2017-07-02T12:14:42Z</time>
      </trkpt>
      <trkpt lat="42.42752" lon="0.08639">
        <ele>598</ele>
        <time>2017-07-02T12:14:43Z</time>
      </trkpt>
      <trkpt lat="42.42756" lon="0.08636">
        <ele>597.5</ele>
        <time>2017-07-02T12:14:44Z</time>
      </trkpt>
      <trkpt lat="42.4276" lon="0.08634">
        <ele>597.1</ele>
        <time>2017-07-02T12:14:45Z</time>
      </trkpt>
      <trkpt lat="42.42766" lon="0.08634">
        <ele>596.5</ele>
        <time>2017-07-02T12:14:46Z</time>
      </trkpt>
      <trkpt lat="42.42769" lon="0.08633">
        <ele>596.2</ele>
        <time>2017-07-02T12:14:47Z</time>
      </trkpt>
      <trkpt lat="42.42774" lon="0.08631">
        <ele>595.8</ele>
        <time>2017-07-02T12:14:48Z</time>
      </trkpt>
      <trkpt lat="42.4278" lon="0.0863">
        <ele>595.3</ele>
        <time>2017-07-02T12:14:49Z</time>
      </trkpt>
      <trkpt lat="42.42784" lon="0.08626">
        <ele>594.7</ele>
        <time>2017-07-02T12:14:50Z</time>
      </trkpt>
      <trkpt lat="42.42789" lon="0.08622">
        <ele>594.2</ele>
        <time>2017-07-02T12:14:51Z</time>
      </trkpt>
      <trkpt lat="42.42795" lon="0.08617">
        <ele>593.5</ele>
        <time>2017-07-02T12:14:52Z</time>
      </trkpt>
      <trkpt lat="42.42799" lon="0.08614">
        <ele>593.1</ele>
        <time>2017-07-02T12:14:53Z</time>
      </trkpt>
      <trkpt lat="42.42804" lon="0.08612">
        <ele>592.6</ele>
        <time>2017-07-02T12:14:54Z</time>
      </trkpt>
      <trkpt lat="42.4281" lon="0.0861">
        <ele>592.1</ele>
        <time>2017-07-02T12:14:55Z</time>
      </trkpt>
      <trkpt lat="42.42816" lon="0.08611">
        <ele>591.6</ele>
        <time>2017-07-02T12:14:56Z</time>
      </trkpt>
      <trkpt lat="42.42823" lon="0.08611">
        <ele>591</ele>
        <time>2017-07-02T12:14:57Z</time>
      </trkpt>
      <trkpt lat="42.42828" lon="0.08611">
        <ele>590.4</ele>
        <time>2017-07-02T12:14:58Z</time>
      </trkpt>
      <trkpt lat="42.42835" lon="0.08611">
        <ele>590</ele>
        <time>2017-07-02T12:14:59Z</time>
      </trkpt>
      <trkpt lat="42.42841" lon="0.08608">
        <ele>589.5</ele>
        <time>2017-07-02T12:15:00Z</time>
      </trkpt>
      <trkpt lat="42.42846" lon="0.08602">
        <ele>589.1</ele>
        <time>2017-07-02T12:15:01Z</time>
      </trkpt>
      <trkpt lat="42.42849" lon="0.08595">
        <ele>588.8</ele>
        <time>2017-07-02T12:15:02Z</time>
      </trkpt>
      <trkpt lat="42.42852" lon="0.08588">
        <ele>588.4</ele>
        <time>2017-07-02T12:15:03Z</time>
      </trkpt>
      <trkpt lat="42.42855" lon="0.0858">
        <ele>587.8</ele>
        <time>2017-07-02T12:15:04Z</time>
      </trkpt>
      <trkpt lat="42.42855" lon="0.08574">
        <ele>587.3</ele>
        <time>2017-07-02T12:15:05Z</time>
      </trkpt>
      <trkpt lat="42.42856" lon="0.08567">
        <ele>586.9</ele>
        <time>2017-07-02T12:15:06Z</time>
      </trkpt>
      <trkpt lat="42.42856" lon="0.0856">
        <ele>586.6</ele>
        <time>2017-07-02T12:15:07Z</time>
      </trkpt>
      <trkpt lat="42.42854" lon="0.08553">
        <ele>586.2</ele>
        <time>2017-07-02T12:15:08Z</time>
      </trkpt>
      <trkpt lat="42.42856" lon="0.08546">
        <ele>585.8</ele>
        <time>2017-07-02T12:15:09Z</time>
      </trkpt>
      <trkpt lat="42.42858" lon="0.0854">
        <ele>585.6</ele>
        <time>2017-07-02T12:15:10Z</time>
      </trkpt>
      <trkpt lat="42.42861" lon="0.08536">
        <ele>585.4</ele>
        <time>2017-07-02T12:15:11Z</time>
      </trkpt>
      <trkpt lat="42.42865" lon="0.08531">
        <ele>585.3</ele>
        <time>2017-07-02T12:15:12Z</time>
      </trkpt>
      <trkpt lat="42.42868" lon="0.08527">
        <ele>585.2</ele>
        <time>2017-07-02T12:15:13Z</time>
      </trkpt>
      <trkpt lat="42.42869" lon="0.08521">
        <ele>585.2</ele>
        <time>2017-07-02T12:15:14Z</time>
      </trkpt>
      <trkpt lat="42.4287" lon="0.08516">
        <ele>585.2</ele>
        <time>2017-07-02T12:15:15Z</time>
      </trkpt>
      <trkpt lat="42.42871" lon="0.08511">
        <ele>585.2</ele>
        <time>2017-07-02T12:15:16Z</time>
      </trkpt>
      <trkpt lat="42.42872" lon="0.08504">
        <ele>585.2</ele>
        <time>2017-07-02T12:15:17Z</time>
      </trkpt>
      <trkpt lat="42.42872" lon="0.08498">
        <ele>585.2</ele>
        <time>2017-07-02T12:15:18Z</time>
      </trkpt>
      <trkpt lat="42.42873" lon="0.08492">
        <ele>585.2</ele>
        <time>2017-07-02T12:15:19Z</time>
      </trkpt>
      <trkpt lat="42.42874" lon="0.08486">
        <ele>585.2</ele>
        <time>2017-07-02T12:15:20Z</time>
      </trkpt>
      <trkpt lat="42.42874" lon="0.0848">
        <ele>585.2</ele>
        <time>2017-07-02T12:15:21Z</time>
      </trkpt>
      <trkpt lat="42.42873" lon="0.08474">
        <ele>585.2</ele>
        <time>2017-07-02T12:15:22Z</time>
      </trkpt>
      <trkpt lat="42.42874" lon="0.0847">
        <ele>585.2</ele>
        <time>2017-07-02T12:15:23Z</time>
      </trkpt>
      <trkpt lat="42.42873" lon="0.08464">
        <ele>585.3</ele>
        <time>2017-07-02T12:15:24Z</time>
      </trkpt>
      <trkpt lat="42.42873" lon="0.08458">
        <ele>585.3</ele>
        <time>2017-07-02T12:15:25Z</time>
      </trkpt>
      <trkpt lat="42.42874" lon="0.08452">
        <ele>585.3</ele>
        <time>2017-07-02T12:15:26Z</time>
      </trkpt>
      <trkpt lat="42.42875" lon="0.08447">
        <ele>585.4</ele>
        <time>2017-07-02T12:15:27Z</time>
      </trkpt>
      <trkpt lat="42.42876" lon="0.08442">
        <ele>585.4</ele>
        <time>2017-07-02T12:15:28Z</time>
      </trkpt>
      <trkpt lat="42.42877" lon="0.08437">
        <ele>585.5</ele>
        <time>2017-07-02T12:15:29Z</time>
      </trkpt>
      <trkpt lat="42.42878" lon="0.08432">
        <ele>585.5</ele>
        <time>2017-07-02T12:15:30Z</time>
      </trkpt>
      <trkpt lat="42.42878" lon="0.08427">
        <ele>585.6</ele>
        <time>2017-07-02T12:15:31Z</time>
      </trkpt>
      <trkpt lat="42.42878" lon="0.08422">
        <ele>585.6</ele>
        <time>2017-07-02T12:15:32Z</time>
      </trkpt>
      <trkpt lat="42.42879" lon="0.08416">
        <ele>585.7</ele>
        <time>2017-07-02T12:15:33Z</time>
      </trkpt>
      <trkpt lat="42.42879" lon="0.08411">
        <ele>585.8</ele>
        <time>2017-07-02T12:15:34Z</time>
      </trkpt>
      <trkpt lat="42.4288" lon="0.08406">
        <ele>585.8</ele>
        <time>2017-07-02T12:15:35Z</time>
      </trkpt>
      <trkpt lat="42.42881" lon="0.08401">
        <ele>585.9</ele>
        <time>2017-07-02T12:15:36Z</time>
      </trkpt>
      <trkpt lat="42.42881" lon="0.08396">
        <ele>586</ele>
        <time>2017-07-02T12:15:37Z</time>
      </trkpt>
      <trkpt lat="42.42882" lon="0.08391">
        <ele>586</ele>
        <time>2017-07-02T12:15:38Z</time>
      </trkpt>
      <trkpt lat="42.42882" lon="0.08385">
        <ele>586.1</ele>
        <time>2017-07-02T12:15:39Z</time>
      </trkpt>
      <trkpt lat="42.42883" lon="0.08379">
        <ele>586.2</ele>
        <time>2017-07-02T12:15:40Z</time>
      </trkpt>
      <trkpt lat="42.42883" lon="0.08373">
        <ele>586.3</ele>
        <time>2017-07-02T12:15:41Z</time>
      </trkpt>
      <trkpt lat="42.42883" lon="0.08368">
        <ele>586.4</ele>
        <time>2017-07-02T12:15:42Z</time>
      </trkpt>
      <trkpt lat="42.42883" lon="0.08362">
        <ele>586.4</ele>
        <time>2017-07-02T12:15:43Z</time>
      </trkpt>
      <trkpt lat="42.42883" lon="0.08357">
        <ele>586.4</ele>
        <time>2017-07-02T12:15:44Z</time>
      </trkpt>
      <trkpt lat="42.42883" lon="0.08352">
        <ele>586.5</ele>
        <time>2017-07-02T12:15:45Z</time>
      </trkpt>
      <trkpt lat="42.42882" lon="0.08347">
        <ele>586.5</ele>
        <time>2017-07-02T12:15:46Z</time>
      </trkpt>
      <trkpt lat="42.42881" lon="0.08341">
        <ele>586.6</ele>
        <time>2017-07-02T12:15:47Z</time>
      </trkpt>
      <trkpt lat="42.42881" lon="0.08336">
        <ele>586.6</ele>
        <time>2017-07-02T12:15:48Z</time>
      </trkpt>
      <trkpt lat="42.42881" lon="0.0833">
        <ele>586.7</ele>
        <time>2017-07-02T12:15:49Z</time>
      </trkpt>
      <trkpt lat="42.42881" lon="0.08325">
        <ele>586.7</ele>
        <time>2017-07-02T12:15:50Z</time>
      </trkpt>
      <trkpt lat="42.42882" lon="0.08319">
        <ele>586.8</ele>
        <time>2017-07-02T12:15:51Z</time>
      </trkpt>
      <trkpt lat="42.42882" lon="0.08313">
        <ele>586.8</ele>
        <time>2017-07-02T12:15:52Z</time>
      </trkpt>
      <trkpt lat="42.42883" lon="0.08308">
        <ele>586.9</ele>
        <time>2017-07-02T12:15:53Z</time>
      </trkpt>
      <trkpt lat="42.42883" lon="0.08302">
        <ele>586.9</ele>
        <time>2017-07-02T12:15:54Z</time>
      </trkpt>
      <trkpt lat="42.42883" lon="0.08296">
        <ele>587</ele>
        <time>2017-07-02T12:15:55Z</time>
      </trkpt>
      <trkpt lat="42.42882" lon="0.0829">
        <ele>587.1</ele>
        <time>2017-07-02T12:15:56Z</time>
      </trkpt>
      <trkpt lat="42.42881" lon="0.08285">
        <ele>587.1</ele>
        <time>2017-07-02T12:15:57Z</time>
      </trkpt>
      <trkpt lat="42.4288" lon="0.0828">
        <ele>587.2</ele>
        <time>2017-07-02T12:15:58Z</time>
      </trkpt>
      <trkpt lat="42.42879" lon="0.08275">
        <ele>587.4</ele>
        <time>2017-07-02T12:15:59Z</time>
      </trkpt>
      <trkpt lat="42.42878" lon="0.08269">
        <ele>587.5</ele>
        <time>2017-07-02T12:16:00Z</time>
      </trkpt>
      <trkpt lat="42.42876" lon="0.08265">
        <ele>587.6</ele>
        <time>2017-07-02T12:16:01Z</time>
      </trkpt>
      <trkpt lat="42.42875" lon="0.0826">
        <ele>587.7</ele>
        <time>2017-07-02T12:16:02Z</time>
      </trkpt>
      <trkpt lat="42.42873" lon="0.08256">
        <ele>587.8</ele>
        <time>2017-07-02T12:16:03Z</time>
      </trkpt>
      <trkpt lat="42.42872" lon="0.08252">
        <ele>587.8</ele>
        <time>2017-07-02T12:16:04Z</time>
      </trkpt>
      <trkpt lat="42.4287" lon="0.08249">
        <ele>587.9</ele>
        <time>2017-07-02T12:16:05Z</time>
      </trkpt>
      <trkpt lat="42.42869" lon="0.08245">
        <ele>588</ele>
        <time>2017-07-02T12:16:06Z</time>
      </trkpt>
      <trkpt lat="42.42868" lon="0.08241">
        <ele>588</ele>
        <time>2017-07-02T12:16:07Z</time>
      </trkpt>
      <trkpt lat="42.42866" lon="0.08235">
        <ele>588.2</ele>
        <time>2017-07-02T12:16:09Z</time>
      </trkpt>
      <trkpt lat="42.42865" lon="0.08229">
        <ele>588.2</ele>
        <time>2017-07-02T12:16:11Z</time>
      </trkpt>
      <trkpt lat="42.42865" lon="0.08224">
        <ele>588.3</ele>
        <time>2017-07-02T12:16:13Z</time>
      </trkpt>
      <trkpt lat="42.42866" lon="0.08219">
        <ele>588.3</ele>
        <time>2017-07-02T12:16:14Z</time>
      </trkpt>
      <trkpt lat="42.42868" lon="0.08213">
        <ele>588.1</ele>
        <time>2017-07-02T12:16:15Z</time>
      </trkpt>
      <trkpt lat="42.42869" lon="0.08207">
        <ele>587.9</ele>
        <time>2017-07-02T12:16:16Z</time>
      </trkpt>
      <trkpt lat="42.42871" lon="0.08203">
        <ele>587.7</ele>
        <time>2017-07-02T12:16:17Z</time>
      </trkpt>
      <trkpt lat="42.42873" lon="0.08199">
        <ele>587.5</ele>
        <time>2017-07-02T12:16:18Z</time>
      </trkpt>
      <trkpt lat="42.42875" lon="0.08195">
        <ele>587.3</ele>
        <time>2017-07-02T12:16:19Z</time>
      </trkpt>
      <trkpt lat="42.42878" lon="0.0819">
        <ele>587.3</ele>
        <time>2017-07-02T12:16:20Z</time>
      </trkpt>
      <trkpt lat="42.4288" lon="0.08187">
        <ele>587.2</ele>
        <time>2017-07-02T12:16:21Z</time>
      </trkpt>
      <trkpt lat="42.42882" lon="0.08184">
        <ele>587.1</ele>
        <time>2017-07-02T12:16:22Z</time>
      </trkpt>
      <trkpt lat="42.42884" lon="0.08182">
        <ele>587.1</ele>
        <time>2017-07-02T12:16:23Z</time>
      </trkpt>
      <trkpt lat="42.42887" lon="0.0818">
        <ele>587</ele>
        <time>2017-07-02T12:16:24Z</time>
      </trkpt>
      <trkpt lat="42.42891" lon="0.08177">
        <ele>587</ele>
        <time>2017-07-02T12:16:26Z</time>
      </trkpt>
      <trkpt lat="42.42895" lon="0.08174">
        <ele>587</ele>
        <time>2017-07-02T12:16:28Z</time>
      </trkpt>
      <trkpt lat="42.42898" lon="0.08172">
        <ele>587</ele>
        <time>2017-07-02T12:16:30Z</time>
      </trkpt>
      <trkpt lat="42.42901" lon="0.08172">
        <ele>587</ele>
        <time>2017-07-02T12:16:32Z</time>
      </trkpt>
      <trkpt lat="42.42905" lon="0.08174">
        <ele>587</ele>
        <time>2017-07-02T12:16:34Z</time>
      </trkpt>
      <trkpt lat="42.42909" lon="0.08178">
        <ele>587</ele>
        <time>2017-07-02T12:16:36Z</time>
      </trkpt>
      <trkpt lat="42.42914" lon="0.08181">
        <ele>587</ele>
        <time>2017-07-02T12:16:38Z</time>
      </trkpt>
      <trkpt lat="42.42918" lon="0.08183">
        <ele>587</ele>
        <time>2017-07-02T12:16:40Z</time>
      </trkpt>
      <trkpt lat="42.42921" lon="0.08184">
        <ele>586.8</ele>
        <time>2017-07-02T12:16:41Z</time>
      </trkpt>
      <trkpt lat="42.42924" lon="0.08186">
        <ele>586.6</ele>
        <time>2017-07-02T12:16:42Z</time>
      </trkpt>
      <trkpt lat="42.42926" lon="0.08187">
        <ele>586.5</ele>
        <time>2017-07-02T12:16:43Z</time>
      </trkpt>
      <trkpt lat="42.42929" lon="0.08189">
        <ele>586.5</ele>
        <time>2017-07-02T12:16:44Z</time>
      </trkpt>
      <trkpt lat="42.42932" lon="0.0819">
        <ele>586.5</ele>
        <time>2017-07-02T12:16:45Z</time>
      </trkpt>
      <trkpt lat="42.42935" lon="0.08192">
        <ele>586.5</ele>
        <time>2017-07-02T12:16:46Z</time>
      </trkpt>
      <trkpt lat="42.42938" lon="0.08193">
        <ele>586.6</ele>
        <time>2017-07-02T12:16:47Z</time>
      </trkpt>
      <trkpt lat="42.42941" lon="0.08195">
        <ele>586.7</ele>
        <time>2017-07-02T12:16:48Z</time>
      </trkpt>
      <trkpt lat="42.42945" lon="0.08197">
        <ele>586.8</ele>
        <time>2017-07-02T12:16:49Z</time>
      </trkpt>
      <trkpt lat="42.42948" lon="0.08198">
        <ele>586.8</ele>
        <time>2017-07-02T12:16:50Z</time>
      </trkpt>
      <trkpt lat="42.42952" lon="0.082">
        <ele>586.9</ele>
        <time>2017-07-02T12:16:51Z</time>
      </trkpt>
      <trkpt lat="42.42956" lon="0.08202">
        <ele>587</ele>
        <time>2017-07-02T12:16:52Z</time>
      </trkpt>
      <trkpt lat="42.42959" lon="0.08205">
        <ele>586.6</ele>
        <time>2017-07-02T12:16:53Z</time>
      </trkpt>
      <trkpt lat="42.42963" lon="0.08207">
        <ele>585.7</ele>
        <time>2017-07-02T12:16:54Z</time>
      </trkpt>
      <trkpt lat="42.42967" lon="0.08209">
        <ele>584.9</ele>
        <time>2017-07-02T12:16:55Z</time>
      </trkpt>
      <trkpt lat="42.4297" lon="0.08212">
        <ele>584.2</ele>
        <time>2017-07-02T12:16:56Z</time>
      </trkpt>
      <trkpt lat="42.42974" lon="0.08214">
        <ele>583.5</ele>
        <time>2017-07-02T12:16:57Z</time>
      </trkpt>
      <trkpt lat="42.42978" lon="0.08217">
        <ele>582.9</ele>
        <time>2017-07-02T12:16:58Z</time>
      </trkpt>
      <trkpt lat="42.42982" lon="0.08219">
        <ele>582.5</ele>
        <time>2017-07-02T12:16:59Z</time>
      </trkpt>
      <trkpt lat="42.42986" lon="0.08222">
        <ele>582.4</ele>
        <time>2017-07-02T12:17:00Z</time>
      </trkpt>
      <trkpt lat="42.4299" lon="0.08225">
        <ele>582.2</ele>
        <time>2017-07-02T12:17:01Z</time>
      </trkpt>
      <trkpt lat="42.42994" lon="0.08228">
        <ele>582.1</ele>
        <time>2017-07-02T12:17:02Z</time>
      </trkpt>
      <trkpt lat="42.42998" lon="0.08232">
        <ele>581.9</ele>
        <time>2017-07-02T12:17:03Z</time>
      </trkpt>
      <trkpt lat="42.43002" lon="0.08235">
        <ele>581.8</ele>
        <time>2017-07-02T12:17:04Z</time>
      </trkpt>
      <trkpt lat="42.43005" lon="0.08238">
        <ele>581.6</ele>
        <time>2017-07-02T12:17:05Z</time>
      </trkpt>
      <trkpt lat="42.4301" lon="0.08241">
        <ele>581.5</ele>
        <time>2017-07-02T12:17:06Z</time>
      </trkpt>
      <trkpt lat="42.43014" lon="0.08245">
        <ele>581.3</ele>
        <time>2017-07-02T12:17:07Z</time>
      </trkpt>
      <trkpt lat="42.43019" lon="0.08247">
        <ele>581.2</ele>
        <time>2017-07-02T12:17:08Z</time>
      </trkpt>
      <trkpt lat="42.43023" lon="0.0825">
        <ele>581</ele>
        <time>2017-07-02T12:17:09Z</time>
      </trkpt>
      <trkpt lat="42.43029" lon="0.08253">
        <ele>580.9</ele>
        <time>2017-07-02T12:17:10Z</time>
      </trkpt>
      <trkpt lat="42.43033" lon="0.08255">
        <ele>580.8</ele>
        <time>2017-07-02T12:17:11Z</time>
      </trkpt>
      <trkpt lat="42.43038" lon="0.08258">
        <ele>580.7</ele>
        <time>2017-07-02T12:17:12Z</time>
      </trkpt>
      <trkpt lat="42.43043" lon="0.0826">
        <ele>580.6</ele>
        <time>2017-07-02T12:17:13Z</time>
      </trkpt>
      <trkpt lat="42.43048" lon="0.08262">
        <ele>580.4</ele>
        <time>2017-07-02T12:17:14Z</time>
      </trkpt>
      <trkpt lat="42.43053" lon="0.08265">
        <ele>580.3</ele>
        <time>2017-07-02T12:17:15Z</time>
      </trkpt>
      <trkpt lat="42.43057" lon="0.08267">
        <ele>580.2</ele>
        <time>2017-07-02T12:17:16Z</time>
      </trkpt>
      <trkpt lat="42.43062" lon="0.08269">
        <ele>580.1</ele>
        <time>2017-07-02T12:17:17Z</time>
      </trkpt>
      <trkpt lat="42.43066" lon="0.08271">
        <ele>580</ele>
        <time>2017-07-02T12:17:18Z</time>
      </trkpt>
      <trkpt lat="42.4307" lon="0.08274">
        <ele>580</ele>
        <time>2017-07-02T12:17:19Z</time>
      </trkpt>
      <trkpt lat="42.43075" lon="0.08277">
        <ele>579.9</ele>
        <time>2017-07-02T12:17:20Z</time>
      </trkpt>
      <trkpt lat="42.43079" lon="0.0828">
        <ele>579.8</ele>
        <time>2017-07-02T12:17:21Z</time>
      </trkpt>
      <trkpt lat="42.43084" lon="0.08283">
        <ele>579.7</ele>
        <time>2017-07-02T12:17:22Z</time>
      </trkpt>
      <trkpt lat="42.4309" lon="0.08286">
        <ele>579.6</ele>
        <time>2017-07-02T12:17:23Z</time>
      </trkpt>
      <trkpt lat="42.43095" lon="0.08289">
        <ele>579.5</ele>
        <time>2017-07-02T12:17:24Z</time>
      </trkpt>
      <trkpt lat="42.431" lon="0.08292">
        <ele>579.4</ele>
        <time>2017-07-02T12:17:25Z</time>
      </trkpt>
      <trkpt lat="42.43105" lon="0.08295">
        <ele>579.3</ele>
        <time>2017-07-02T12:17:26Z</time>
      </trkpt>
      <trkpt lat="42.43111" lon="0.08299">
        <ele>579.2</ele>
        <time>2017-07-02T12:17:27Z</time>
      </trkpt>
      <trkpt lat="42.43116" lon="0.08302">
        <ele>579.2</ele>
        <time>2017-07-02T12:17:28Z</time>
      </trkpt>
      <trkpt lat="42.43121" lon="0.08305">
        <ele>579.1</ele>
        <time>2017-07-02T12:17:29Z</time>
      </trkpt>
      <trkpt lat="42.43127" lon="0.08308">
        <ele>579</ele>
        <time>2017-07-02T12:17:30Z</time>
      </trkpt>
      <trkpt lat="42.43132" lon="0.08311">
        <ele>578.9</ele>
        <time>2017-07-02T12:17:31Z</time>
      </trkpt>
      <trkpt lat="42.43137" lon="0.08314">
        <ele>578.8</ele>
        <time>2017-07-02T12:17:32Z</time>
      </trkpt>
      <trkpt lat="42.43142" lon="0.08317">
        <ele>578.8</ele>
        <time>2017-07-02T12:17:33Z</time>
      </trkpt>
      <trkpt lat="42.43148" lon="0.0832">
        <ele>578.7</ele>
        <time>2017-07-02T12:17:34Z</time>
      </trkpt>
      <trkpt lat="42.43153" lon="0.08323">
        <ele>578.6</ele>
        <time>2017-07-02T12:17:35Z</time>
      </trkpt>
      <trkpt lat="42.43157" lon="0.08326">
        <ele>578.5</ele>
        <time>2017-07-02T12:17:36Z</time>
      </trkpt>
      <trkpt lat="42.43162" lon="0.08328">
        <ele>578.5</ele>
        <time>2017-07-02T12:17:37Z</time>
      </trkpt>
      <trkpt lat="42.43166" lon="0.08331">
        <ele>578.4</ele>
        <time>2017-07-02T12:17:38Z</time>
      </trkpt>
      <trkpt lat="42.43171" lon="0.08334">
        <ele>578.3</ele>
        <time>2017-07-02T12:17:39Z</time>
      </trkpt>
      <trkpt lat="42.43175" lon="0.08337">
        <ele>578.3</ele>
        <time>2017-07-02T12:17:40Z</time>
      </trkpt>
      <trkpt lat="42.4318" lon="0.0834">
        <ele>578.2</ele>
        <time>2017-07-02T12:17:41Z</time>
      </trkpt>
      <trkpt lat="42.43185" lon="0.08343">
        <ele>578.1</ele>
        <time>2017-07-02T12:17:42Z</time>
      </trkpt>
      <trkpt lat="42.43189" lon="0.08346">
        <ele>578</ele>
        <time>2017-07-02T12:17:43Z</time>
      </trkpt>
      <trkpt lat="42.43194" lon="0.08349">
        <ele>578</ele>
        <time>2017-07-02T12:17:44Z</time>
      </trkpt>
      <trkpt lat="42.43198" lon="0.08352">
        <ele>577.9</ele>
        <time>2017-07-02T12:17:45Z</time>
      </trkpt>
      <trkpt lat="42.43203" lon="0.08355">
        <ele>577.8</ele>
        <time>2017-07-02T12:17:46Z</time>
      </trkpt>
      <trkpt lat="42.43208" lon="0.08357">
        <ele>577.8</ele>
        <time>2017-07-02T12:17:47Z</time>
      </trkpt>
      <trkpt lat="42.43213" lon="0.08359">
        <ele>577.7</ele>
        <time>2017-07-02T12:17:48Z</time>
      </trkpt>
      <trkpt lat="42.43218" lon="0.08362">
        <ele>577.6</ele>
        <time>2017-07-02T12:17:49Z</time>
      </trkpt>
      <trkpt lat="42.43221" lon="0.08365">
        <ele>577.5</ele>
        <time>2017-07-02T12:17:50Z</time>
      </trkpt>
      <trkpt lat="42.43226" lon="0.08368">
        <ele>577.4</ele>
        <time>2017-07-02T12:17:51Z</time>
      </trkpt>
      <trkpt lat="42.43229" lon="0.08373">
        <ele>577.4</ele>
        <time>2017-07-02T12:17:52Z</time>
      </trkpt>
      <trkpt lat="42.43234" lon="0.08374">
        <ele>577.3</ele>
        <time>2017-07-02T12:17:53Z</time>
      </trkpt>
      <trkpt lat="42.43239" lon="0.08375">
        <ele>577.2</ele>
        <time>2017-07-02T12:17:54Z</time>
      </trkpt>
      <trkpt lat="42.43244" lon="0.08377">
        <ele>577.1</ele>
        <time>2017-07-02T12:17:55Z</time>
      </trkpt>
      <trkpt lat="42.43249" lon="0.08379">
        <ele>577</ele>
        <time>2017-07-02T12:17:56Z</time>
      </trkpt>
      <trkpt lat="42.43253" lon="0.08381">
        <ele>577</ele>
        <time>2017-07-02T12:17:57Z</time>
      </trkpt>
      <trkpt lat="42.43258" lon="0.08384">
        <ele>577</ele>
        <time>2017-07-02T12:17:58Z</time>
      </trkpt>
      <trkpt lat="42.43261" lon="0.08388">
        <ele>576.9</ele>
        <time>2017-07-02T12:17:59Z</time>
      </trkpt>
      <trkpt lat="42.43265" lon="0.08392">
        <ele>576.8</ele>
        <time>2017-07-02T12:18:00Z</time>
      </trkpt>
      <trkpt lat="42.43268" lon="0.08398">
        <ele>576.6</ele>
        <time>2017-07-02T12:18:01Z</time>
      </trkpt>
      <trkpt lat="42.43271" lon="0.08404">
        <ele>576.4</ele>
        <time>2017-07-02T12:18:02Z</time>
      </trkpt>
      <trkpt lat="42.43274" lon="0.0841">
        <ele>576.3</ele>
        <time>2017-07-02T12:18:03Z</time>
      </trkpt>
      <trkpt lat="42.43278" lon="0.08416">
        <ele>576.1</ele>
        <time>2017-07-02T12:18:04Z</time>
      </trkpt>
      <trkpt lat="42.43283" lon="0.08421">
        <ele>576</ele>
        <time>2017-07-02T12:18:05Z</time>
      </trkpt>
      <trkpt lat="42.43287" lon="0.08426">
        <ele>576</ele>
        <time>2017-07-02T12:18:06Z</time>
      </trkpt>
      <trkpt lat="42.43292" lon="0.0843">
        <ele>576</ele>
        <time>2017-07-02T12:18:07Z</time>
      </trkpt>
      <trkpt lat="42.43297" lon="0.08434">
        <ele>576</ele>
        <time>2017-07-02T12:18:08Z</time>
      </trkpt>
      <trkpt lat="42.43302" lon="0.08438">
        <ele>576</ele>
        <time>2017-07-02T12:18:09Z</time>
      </trkpt>
      <trkpt lat="42.43307" lon="0.08443">
        <ele>576</ele>
        <time>2017-07-02T12:18:10Z</time>
      </trkpt>
      <trkpt lat="42.43311" lon="0.08448">
        <ele>576</ele>
        <time>2017-07-02T12:18:11Z</time>
      </trkpt>
      <trkpt lat="42.43316" lon="0.08452">
        <ele>576</ele>
        <time>2017-07-02T12:18:12Z</time>
      </trkpt>
      <trkpt lat="42.43321" lon="0.08456">
        <ele>576</ele>
        <time>2017-07-02T12:18:13Z</time>
      </trkpt>
      <trkpt lat="42.43325" lon="0.08461">
        <ele>576</ele>
        <time>2017-07-02T12:18:14Z</time>
      </trkpt>
      <trkpt lat="42.43329" lon="0.08466">
        <ele>576</ele>
        <time>2017-07-02T12:18:15Z</time>
      </trkpt>
      <trkpt lat="42.43329" lon="0.08475">
        <ele>576</ele>
        <time>2017-07-02T12:18:16Z</time>
      </trkpt>
      <trkpt lat="42.43328" lon="0.08482">
        <ele>576.2</ele>
        <time>2017-07-02T12:18:17Z</time>
      </trkpt>
      <trkpt lat="42.43325" lon="0.0849">
        <ele>576.4</ele>
        <time>2017-07-02T12:18:18Z</time>
      </trkpt>
      <trkpt lat="42.43322" lon="0.08495">
        <ele>576.5</ele>
        <time>2017-07-02T12:18:19Z</time>
      </trkpt>
      <trkpt lat="42.43319" lon="0.08499">
        <ele>576.5</ele>
        <time>2017-07-02T12:18:20Z</time>
      </trkpt>
      <trkpt lat="42.43316" lon="0.08504">
        <ele>576.6</ele>
        <time>2017-07-02T12:18:21Z</time>
      </trkpt>
      <trkpt lat="42.43311" lon="0.08507">
        <ele>576.6</ele>
        <time>2017-07-02T12:18:22Z</time>
      </trkpt>
      <trkpt lat="42.43308" lon="0.08511">
        <ele>576.6</ele>
        <time>2017-07-02T12:18:23Z</time>
      </trkpt>
      <trkpt lat="42.43305" lon="0.08515">
        <ele>576.3</ele>
        <time>2017-07-02T12:18:24Z</time>
      </trkpt>
      <trkpt lat="42.43302" lon="0.08519">
        <ele>576.1</ele>
        <time>2017-07-02T12:18:25Z</time>
      </trkpt>
      <trkpt lat="42.43299" lon="0.08523">
        <ele>576</ele>
        <time>2017-07-02T12:18:26Z</time>
      </trkpt>
      <trkpt lat="42.43295" lon="0.08527">
        <ele>576</ele>
        <time>2017-07-02T12:18:27Z</time>
      </trkpt>
      <trkpt lat="42.43292" lon="0.08531">
        <ele>576</ele>
        <time>2017-07-02T12:18:28Z</time>
      </trkpt>
      <trkpt lat="42.43289" lon="0.08535">
        <ele>576</ele>
        <time>2017-07-02T12:18:29Z</time>
      </trkpt>
      <trkpt lat="42.43285" lon="0.08539">
        <ele>576</ele>
        <time>2017-07-02T12:18:30Z</time>
      </trkpt>
      <trkpt lat="42.43282" lon="0.08543">
        <ele>576</ele>
        <time>2017-07-02T12:18:31Z</time>
      </trkpt>
      <trkpt lat="42.43279" lon="0.08548">
        <ele>576</ele>
        <time>2017-07-02T12:18:32Z</time>
      </trkpt>
      <trkpt lat="42.43275" lon="0.08553">
        <ele>576</ele>
        <time>2017-07-02T12:18:33Z</time>
      </trkpt>
      <trkpt lat="42.43272" lon="0.08558">
        <ele>575.9</ele>
        <time>2017-07-02T12:18:34Z</time>
      </trkpt>
      <trkpt lat="42.4327" lon="0.08565">
        <ele>575.9</ele>
        <time>2017-07-02T12:18:35Z</time>
      </trkpt>
      <trkpt lat="42.43268" lon="0.08571">
        <ele>575.8</ele>
        <time>2017-07-02T12:18:36Z</time>
      </trkpt>
      <trkpt lat="42.43265" lon="0.08578">
        <ele>575.8</ele>
        <time>2017-07-02T12:18:37Z</time>
      </trkpt>
      <trkpt lat="42.43263" lon="0.08585">
        <ele>575.7</ele>
        <time>2017-07-02T12:18:38Z</time>
      </trkpt>
      <trkpt lat="42.4326" lon="0.08591">
        <ele>575.6</ele>
        <time>2017-07-02T12:18:39Z</time>
      </trkpt>
      <trkpt lat="42.43257" lon="0.08596">
        <ele>575.6</ele>
        <time>2017-07-02T12:18:40Z</time>
      </trkpt>
      <trkpt lat="42.43254" lon="0.08602">
        <ele>575.5</ele>
        <time>2017-07-02T12:18:41Z</time>
      </trkpt>
      <trkpt lat="42.4325" lon="0.08608">
        <ele>575.4</ele>
        <time>2017-07-02T12:18:42Z</time>
      </trkpt>
      <trkpt lat="42.43248" lon="0.08613">
        <ele>575.4</ele>
        <time>2017-07-02T12:18:43Z</time>
      </trkpt>
      <trkpt lat="42.43245" lon="0.08618">
        <ele>575.3</ele>
        <time>2017-07-02T12:18:44Z</time>
      </trkpt>
      <trkpt lat="42.43242" lon="0.08624">
        <ele>575.1</ele>
        <time>2017-07-02T12:18:45Z</time>
      </trkpt>
      <trkpt lat="42.43239" lon="0.0863">
        <ele>574.8</ele>
        <time>2017-07-02T12:18:46Z</time>
      </trkpt>
      <trkpt lat="42.43236" lon="0.08635">
        <ele>574.4</ele>
        <time>2017-07-02T12:18:47Z</time>
      </trkpt>
      <trkpt lat="42.43234" lon="0.08641">
        <ele>574.1</ele>
        <time>2017-07-02T12:18:48Z</time>
      </trkpt>
      <trkpt lat="42.43231" lon="0.08646">
        <ele>573.9</ele>
        <time>2017-07-02T12:18:49Z</time>
      </trkpt>
      <trkpt lat="42.43228" lon="0.08652">
        <ele>573.8</ele>
        <time>2017-07-02T12:18:50Z</time>
      </trkpt>
      <trkpt lat="42.43225" lon="0.08658">
        <ele>573.6</ele>
        <time>2017-07-02T12:18:51Z</time>
      </trkpt>
      <trkpt lat="42.43222" lon="0.08664">
        <ele>573.5</ele>
        <time>2017-07-02T12:18:52Z</time>
      </trkpt>
      <trkpt lat="42.43219" lon="0.08669">
        <ele>573.4</ele>
        <time>2017-07-02T12:18:53Z</time>
      </trkpt>
      <trkpt lat="42.43217" lon="0.08675">
        <ele>573.3</ele>
        <time>2017-07-02T12:18:54Z</time>
      </trkpt>
      <trkpt lat="42.43214" lon="0.0868">
        <ele>573.3</ele>
        <time>2017-07-02T12:18:55Z</time>
      </trkpt>
      <trkpt lat="42.43211" lon="0.08685">
        <ele>573.2</ele>
        <time>2017-07-02T12:18:56Z</time>
      </trkpt>
      <trkpt lat="42.43208" lon="0.0869">
        <ele>573.2</ele>
        <time>2017-07-02T12:18:57Z</time>
      </trkpt>
      <trkpt lat="42.43206" lon="0.08695">
        <ele>573.2</ele>
        <time>2017-07-02T12:18:58Z</time>
      </trkpt>
      <trkpt lat="42.43204" lon="0.087">
        <ele>573.2</ele>
        <time>2017-07-02T12:18:59Z</time>
      </trkpt>
      <trkpt lat="42.43201" lon="0.08705">
        <ele>573.1</ele>
        <time>2017-07-02T12:19:00Z</time>
      </trkpt>
      <trkpt lat="42.43199" lon="0.0871">
        <ele>573.1</ele>
        <time>2017-07-02T12:19:01Z</time>
      </trkpt>
      <trkpt lat="42.43196" lon="0.08715">
        <ele>573.1</ele>
        <time>2017-07-02T12:19:02Z</time>
      </trkpt>
      <trkpt lat="42.43194" lon="0.0872">
        <ele>573.1</ele>
        <time>2017-07-02T12:19:03Z</time>
      </trkpt>
      <trkpt lat="42.43191" lon="0.08725">
        <ele>573.1</ele>
        <time>2017-07-02T12:19:04Z</time>
      </trkpt>
      <trkpt lat="42.43188" lon="0.08731">
        <ele>573.1</ele>
        <time>2017-07-02T12:19:05Z</time>
      </trkpt>
      <trkpt lat="42.43185" lon="0.08736">
        <ele>573</ele>
        <time>2017-07-02T12:19:06Z</time>
      </trkpt>
      <trkpt lat="42.43182" lon="0.08741">
        <ele>573</ele>
        <time>2017-07-02T12:19:07Z</time>
      </trkpt>
      <trkpt lat="42.43179" lon="0.08746">
        <ele>573</ele>
        <time>2017-07-02T12:19:08Z</time>
      </trkpt>
      <trkpt lat="42.43176" lon="0.08751">
        <ele>572.9</ele>
        <time>2017-07-02T12:19:09Z</time>
      </trkpt>
      <trkpt lat="42.43172" lon="0.08756">
        <ele>572.9</ele>
        <time>2017-07-02T12:19:10Z</time>
      </trkpt>
      <trkpt lat="42.43168" lon="0.08759">
        <ele>572.9</ele>
        <time>2017-07-02T12:19:11Z</time>
      </trkpt>
      <trkpt lat="42.43162" lon="0.08761">
        <ele>572.8</ele>
        <time>2017-07-02T12:19:12Z</time>
      </trkpt>
      <trkpt lat="42.43157" lon="0.08763">
        <ele>572.8</ele>
        <time>2017-07-02T12:19:13Z</time>
      </trkpt>
      <trkpt lat="42.43151" lon="0.08764">
        <ele>572.7</ele>
        <time>2017-07-02T12:19:14Z</time>
      </trkpt>
      <trkpt lat="42.43145" lon="0.08765">
        <ele>572.6</ele>
        <time>2017-07-02T12:19:15Z</time>
      </trkpt>
      <trkpt lat="42.43139" lon="0.08767">
        <ele>572.5</ele>
        <time>2017-07-02T12:19:16Z</time>
      </trkpt>
      <trkpt lat="42.43133" lon="0.08769">
        <ele>572.5</ele>
        <time>2017-07-02T12:19:17Z</time>
      </trkpt>
      <trkpt lat="42.43128" lon="0.08773">
        <ele>572.4</ele>
        <time>2017-07-02T12:19:18Z</time>
      </trkpt>
      <trkpt lat="42.43124" lon="0.08779">
        <ele>572.2</ele>
        <time>2017-07-02T12:19:19Z</time>
      </trkpt>
      <trkpt lat="42.4312" lon="0.08784">
        <ele>572</ele>
        <time>2017-07-02T12:19:20Z</time>
      </trkpt>
      <trkpt lat="42.43117" lon="0.0879">
        <ele>571.6</ele>
        <time>2017-07-02T12:19:21Z</time>
      </trkpt>
      <trkpt lat="42.43114" lon="0.08795">
        <ele>571.3</ele>
        <time>2017-07-02T12:19:22Z</time>
      </trkpt>
      <trkpt lat="42.43111" lon="0.08801">
        <ele>571</ele>
        <time>2017-07-02T12:19:23Z</time>
      </trkpt>
      <trkpt lat="42.43108" lon="0.08807">
        <ele>571</ele>
        <time>2017-07-02T12:19:24Z</time>
      </trkpt>
      <trkpt lat="42.43105" lon="0.08813">
        <ele>571</ele>
        <time>2017-07-02T12:19:25Z</time>
      </trkpt>
      <trkpt lat="42.43102" lon="0.08817">
        <ele>571</ele>
        <time>2017-07-02T12:19:26Z</time>
      </trkpt>
      <trkpt lat="42.43099" lon="0.08822">
        <ele>571</ele>
        <time>2017-07-02T12:19:27Z</time>
      </trkpt>
      <trkpt lat="42.43095" lon="0.08827">
        <ele>571</ele>
        <time>2017-07-02T12:19:28Z</time>
      </trkpt>
      <trkpt lat="42.4309" lon="0.08832">
        <ele>571</ele>
        <time>2017-07-02T12:19:29Z</time>
      </trkpt>
      <trkpt lat="42.43083" lon="0.08836">
        <ele>571</ele>
        <time>2017-07-02T12:19:30Z</time>
      </trkpt>
      <trkpt lat="42.43077" lon="0.08841">
        <ele>571</ele>
        <time>2017-07-02T12:19:31Z</time>
      </trkpt>
      <trkpt lat="42.43072" lon="0.08847">
        <ele>571</ele>
        <time>2017-07-02T12:19:32Z</time>
      </trkpt>
      <trkpt lat="42.43068" lon="0.08853">
        <ele>571</ele>
        <time>2017-07-02T12:19:33Z</time>
      </trkpt>
      <trkpt lat="42.43065" lon="0.08858">
        <ele>571</ele>
        <time>2017-07-02T12:19:34Z</time>
      </trkpt>
      <trkpt lat="42.43061" lon="0.08864">
        <ele>571</ele>
        <time>2017-07-02T12:19:35Z</time>
      </trkpt>
      <trkpt lat="42.43059" lon="0.08871">
        <ele>571</ele>
        <time>2017-07-02T12:19:36Z</time>
      </trkpt>
      <trkpt lat="42.43056" lon="0.08878">
        <ele>571</ele>
        <time>2017-07-02T12:19:37Z</time>
      </trkpt>
      <trkpt lat="42.43053" lon="0.08886">
        <ele>571</ele>
        <time>2017-07-02T12:19:38Z</time>
      </trkpt>
      <trkpt lat="42.43049" lon="0.08893">
        <ele>571.1</ele>
        <time>2017-07-02T12:19:39Z</time>
      </trkpt>
      <trkpt lat="42.43046" lon="0.08901">
        <ele>571.1</ele>
        <time>2017-07-02T12:19:40Z</time>
      </trkpt>
      <trkpt lat="42.43042" lon="0.08908">
        <ele>571.1</ele>
        <time>2017-07-02T12:19:41Z</time>
      </trkpt>
      <trkpt lat="42.43039" lon="0.08916">
        <ele>571.1</ele>
        <time>2017-07-02T12:19:42Z</time>
      </trkpt>
      <trkpt lat="42.43035" lon="0.08923">
        <ele>571.1</ele>
        <time>2017-07-02T12:19:43Z</time>
      </trkpt>
      <trkpt lat="42.43032" lon="0.08931">
        <ele>571.1</ele>
        <time>2017-07-02T12:19:44Z</time>
      </trkpt>
      <trkpt lat="42.43028" lon="0.08938">
        <ele>571.1</ele>
        <time>2017-07-02T12:19:45Z</time>
      </trkpt>
      <trkpt lat="42.43026" lon="0.08945">
        <ele>571.1</ele>
        <time>2017-07-02T12:19:46Z</time>
      </trkpt>
      <trkpt lat="42.43022" lon="0.08953">
        <ele>571.1</ele>
        <time>2017-07-02T12:19:47Z</time>
      </trkpt>
      <trkpt lat="42.43019" lon="0.0896">
        <ele>571.1</ele>
        <time>2017-07-02T12:19:48Z</time>
      </trkpt>
      <trkpt lat="42.43016" lon="0.08968">
        <ele>571.1</ele>
        <time>2017-07-02T12:19:49Z</time>
      </trkpt>
      <trkpt lat="42.43013" lon="0.08975">
        <ele>571.2</ele>
        <time>2017-07-02T12:19:50Z</time>
      </trkpt>
      <trkpt lat="42.4301" lon="0.08982">
        <ele>571.2</ele>
        <time>2017-07-02T12:19:51Z</time>
      </trkpt>
      <trkpt lat="42.43006" lon="0.08989">
        <ele>571.2</ele>
        <time>2017-07-02T12:19:52Z</time>
      </trkpt>
      <trkpt lat="42.43002" lon="0.08995">
        <ele>571.2</ele>
        <time>2017-07-02T12:19:53Z</time>
      </trkpt>
      <trkpt lat="42.42999" lon="0.09002">
        <ele>571.2</ele>
        <time>2017-07-02T12:19:54Z</time>
      </trkpt>
      <trkpt lat="42.42996" lon="0.09009">
        <ele>571.3</ele>
        <time>2017-07-02T12:19:55Z</time>
      </trkpt>
      <trkpt lat="42.42992" lon="0.09015">
        <ele>571.3</ele>
        <time>2017-07-02T12:19:56Z</time>
      </trkpt>
      <trkpt lat="42.42987" lon="0.09021">
        <ele>571.4</ele>
        <time>2017-07-02T12:19:57Z</time>
      </trkpt>
      <trkpt lat="42.42983" lon="0.09026">
        <ele>571.4</ele>
        <time>2017-07-02T12:19:58Z</time>
      </trkpt>
      <trkpt lat="42.42978" lon="0.0903">
        <ele>571.5</ele>
        <time>2017-07-02T12:19:59Z</time>
      </trkpt>
      <trkpt lat="42.42974" lon="0.09034">
        <ele>571.5</ele>
        <time>2017-07-02T12:20:00Z</time>
      </trkpt>
      <trkpt lat="42.42969" lon="0.0904">
        <ele>571.6</ele>
        <time>2017-07-02T12:20:01Z</time>
      </trkpt>
      <trkpt lat="42.42965" lon="0.09045">
        <ele>571.7</ele>
        <time>2017-07-02T12:20:02Z</time>
      </trkpt>
      <trkpt lat="42.42961" lon="0.0905">
        <ele>571.9</ele>
        <time>2017-07-02T12:20:03Z</time>
      </trkpt>
      <trkpt lat="42.42957" lon="0.09054">
        <ele>572.1</ele>
        <time>2017-07-02T12:20:04Z</time>
      </trkpt>
      <trkpt lat="42.42953" lon="0.09059">
        <ele>572.4</ele>
        <time>2017-07-02T12:20:05Z</time>
      </trkpt>
      <trkpt lat="42.42949" lon="0.09065">
        <ele>572.7</ele>
        <time>2017-07-02T12:20:06Z</time>
      </trkpt>
      <trkpt lat="42.42945" lon="0.09071">
        <ele>572.9</ele>
        <time>2017-07-02T12:20:07Z</time>
      </trkpt>
      <trkpt lat="42.42941" lon="0.09077">
        <ele>573.1</ele>
        <time>2017-07-02T12:20:08Z</time>
      </trkpt>
      <trkpt lat="42.42937" lon="0.09082">
        <ele>573.3</ele>
        <time>2017-07-02T12:20:09Z</time>
      </trkpt>
      <trkpt lat="42.42933" lon="0.09086">
        <ele>573.3</ele>
        <time>2017-07-02T12:20:10Z</time>
      </trkpt>
      <trkpt lat="42.42929" lon="0.0909">
        <ele>573.3</ele>
        <time>2017-07-02T12:20:11Z</time>
      </trkpt>
      <trkpt lat="42.42925" lon="0.09094">
        <ele>573.4</ele>
        <time>2017-07-02T12:20:12Z</time>
      </trkpt>
      <trkpt lat="42.4292" lon="0.09098">
        <ele>573.4</ele>
        <time>2017-07-02T12:20:13Z</time>
      </trkpt>
      <trkpt lat="42.42916" lon="0.09102">
        <ele>573.4</ele>
        <time>2017-07-02T12:20:14Z</time>
      </trkpt>
      <trkpt lat="42.42912" lon="0.09106">
        <ele>573.5</ele>
        <time>2017-07-02T12:20:15Z</time>
      </trkpt>
      <trkpt lat="42.42908" lon="0.09111">
        <ele>573.5</ele>
        <time>2017-07-02T12:20:16Z</time>
      </trkpt>
      <trkpt lat="42.42904" lon="0.09115">
        <ele>573.5</ele>
        <time>2017-07-02T12:20:17Z</time>
      </trkpt>
      <trkpt lat="42.429" lon="0.09119">
        <ele>573.5</ele>
        <time>2017-07-02T12:20:18Z</time>
      </trkpt>
      <trkpt lat="42.42897" lon="0.09123">
        <ele>573.5</ele>
        <time>2017-07-02T12:20:19Z</time>
      </trkpt>
      <trkpt lat="42.42893" lon="0.09128">
        <ele>573.5</ele>
        <time>2017-07-02T12:20:20Z</time>
      </trkpt>
      <trkpt lat="42.42889" lon="0.09132">
        <ele>573.5</ele>
        <time>2017-07-02T12:20:21Z</time>
      </trkpt>
      <trkpt lat="42.42885" lon="0.09137">
        <ele>573.6</ele>
        <time>2017-07-02T12:20:22Z</time>
      </trkpt>
      <trkpt lat="42.42881" lon="0.09143">
        <ele>573.6</ele>
        <time>2017-07-02T12:20:23Z</time>
      </trkpt>
      <trkpt lat="42.42877" lon="0.09148">
        <ele>573.6</ele>
        <time>2017-07-02T12:20:24Z</time>
      </trkpt>
      <trkpt lat="42.42873" lon="0.09153">
        <ele>573.6</ele>
        <time>2017-07-02T12:20:25Z</time>
      </trkpt>
      <trkpt lat="42.42869" lon="0.09159">
        <ele>573.6</ele>
        <time>2017-07-02T12:20:26Z</time>
      </trkpt>
      <trkpt lat="42.42865" lon="0.09165">
        <ele>573.6</ele>
        <time>2017-07-02T12:20:27Z</time>
      </trkpt>
      <trkpt lat="42.42862" lon="0.0917">
        <ele>573.6</ele>
        <time>2017-07-02T12:20:28Z</time>
      </trkpt>
      <trkpt lat="42.42858" lon="0.09176">
        <ele>573.6</ele>
        <time>2017-07-02T12:20:29Z</time>
      </trkpt>
      <trkpt lat="42.42854" lon="0.09182">
        <ele>573.6</ele>
        <time>2017-07-02T12:20:30Z</time>
      </trkpt>
      <trkpt lat="42.4285" lon="0.09187">
        <ele>573.6</ele>
        <time>2017-07-02T12:20:31Z</time>
      </trkpt>
      <trkpt lat="42.42845" lon="0.09193">
        <ele>573.6</ele>
        <time>2017-07-02T12:20:32Z</time>
      </trkpt>
      <trkpt lat="42.42842" lon="0.09199">
        <ele>573.6</ele>
        <time>2017-07-02T12:20:33Z</time>
      </trkpt>
      <trkpt lat="42.42838" lon="0.09204">
        <ele>573.6</ele>
        <time>2017-07-02T12:20:34Z</time>
      </trkpt>
      <trkpt lat="42.42834" lon="0.0921">
        <ele>573.6</ele>
        <time>2017-07-02T12:20:35Z</time>
      </trkpt>
      <trkpt lat="42.42831" lon="0.09215">
        <ele>573.6</ele>
        <time>2017-07-02T12:20:36Z</time>
      </trkpt>
      <trkpt lat="42.42827" lon="0.09219">
        <ele>573.6</ele>
        <time>2017-07-02T12:20:37Z</time>
      </trkpt>
      <trkpt lat="42.42824" lon="0.09225">
        <ele>573.6</ele>
        <time>2017-07-02T12:20:38Z</time>
      </trkpt>
      <trkpt lat="42.4282" lon="0.0923">
        <ele>573.7</ele>
        <time>2017-07-02T12:20:39Z</time>
      </trkpt>
      <trkpt lat="42.42816" lon="0.09234">
        <ele>573.7</ele>
        <time>2017-07-02T12:20:40Z</time>
      </trkpt>
      <trkpt lat="42.42813" lon="0.0924">
        <ele>573.7</ele>
        <time>2017-07-02T12:20:41Z</time>
      </trkpt>
      <trkpt lat="42.4281" lon="0.09245">
        <ele>573.7</ele>
        <time>2017-07-02T12:20:42Z</time>
      </trkpt>
      <trkpt lat="42.42807" lon="0.0925">
        <ele>573.7</ele>
        <time>2017-07-02T12:20:43Z</time>
      </trkpt>
      <trkpt lat="42.42804" lon="0.09255">
        <ele>573.7</ele>
        <time>2017-07-02T12:20:44Z</time>
      </trkpt>
      <trkpt lat="42.428" lon="0.09262">
        <ele>573.7</ele>
        <time>2017-07-02T12:20:45Z</time>
      </trkpt>
      <trkpt lat="42.42797" lon="0.09268">
        <ele>573.7</ele>
        <time>2017-07-02T12:20:46Z</time>
      </trkpt>
      <trkpt lat="42.42794" lon="0.09273">
        <ele>573.7</ele>
        <time>2017-07-02T12:20:47Z</time>
      </trkpt>
      <trkpt lat="42.42791" lon="0.09277">
        <ele>573.7</ele>
        <time>2017-07-02T12:20:48Z</time>
      </trkpt>
      <trkpt lat="42.42788" lon="0.09281">
        <ele>573.7</ele>
        <time>2017-07-02T12:20:49Z</time>
      </trkpt>
      <trkpt lat="42.42785" lon="0.09287">
        <ele>573.7</ele>
        <time>2017-07-02T12:20:50Z</time>
      </trkpt>
      <trkpt lat="42.42783" lon="0.09292">
        <ele>573.7</ele>
        <time>2017-07-02T12:20:51Z</time>
      </trkpt>
      <trkpt lat="42.42781" lon="0.09297">
        <ele>573.7</ele>
        <time>2017-07-02T12:20:52Z</time>
      </trkpt>
      <trkpt lat="42.42778" lon="0.09303">
        <ele>573.7</ele>
        <time>2017-07-02T12:20:53Z</time>
      </trkpt>
      <trkpt lat="42.42777" lon="0.09308">
        <ele>573.7</ele>
        <time>2017-07-02T12:20:54Z</time>
      </trkpt>
      <trkpt lat="42.42775" lon="0.09314">
        <ele>573.7</ele>
        <time>2017-07-02T12:20:55Z</time>
      </trkpt>
      <trkpt lat="42.42773" lon="0.09319">
        <ele>573.7</ele>
        <time>2017-07-02T12:20:56Z</time>
      </trkpt>
      <trkpt lat="42.42771" lon="0.09325">
        <ele>573.6</ele>
        <time>2017-07-02T12:20:57Z</time>
      </trkpt>
      <trkpt lat="42.4277" lon="0.09331">
        <ele>573.6</ele>
        <time>2017-07-02T12:20:58Z</time>
      </trkpt>
      <trkpt lat="42.42769" lon="0.09337">
        <ele>573.6</ele>
        <time>2017-07-02T12:20:59Z</time>
      </trkpt>
      <trkpt lat="42.42768" lon="0.09343">
        <ele>573.5</ele>
        <time>2017-07-02T12:21:00Z</time>
      </trkpt>
      <trkpt lat="42.42768" lon="0.09349">
        <ele>573.5</ele>
        <time>2017-07-02T12:21:01Z</time>
      </trkpt>
      <trkpt lat="42.42767" lon="0.09354">
        <ele>573.3</ele>
        <time>2017-07-02T12:21:02Z</time>
      </trkpt>
      <trkpt lat="42.42766" lon="0.0936">
        <ele>573</ele>
        <time>2017-07-02T12:21:03Z</time>
      </trkpt>
      <trkpt lat="42.42766" lon="0.09367">
        <ele>572.6</ele>
        <time>2017-07-02T12:21:04Z</time>
      </trkpt>
      <trkpt lat="42.42766" lon="0.09373">
        <ele>572.3</ele>
        <time>2017-07-02T12:21:05Z</time>
      </trkpt>
      <trkpt lat="42.42767" lon="0.09381">
        <ele>572.1</ele>
        <time>2017-07-02T12:21:06Z</time>
      </trkpt>
      <trkpt lat="42.42766" lon="0.09389">
        <ele>571.9</ele>
        <time>2017-07-02T12:21:07Z</time>
      </trkpt>
      <trkpt lat="42.42766" lon="0.09397">
        <ele>571.7</ele>
        <time>2017-07-02T12:21:08Z</time>
      </trkpt>
      <trkpt lat="42.42765" lon="0.09406">
        <ele>571.3</ele>
        <time>2017-07-02T12:21:09Z</time>
      </trkpt>
      <trkpt lat="42.42764" lon="0.09414">
        <ele>570.9</ele>
        <time>2017-07-02T12:21:10Z</time>
      </trkpt>
      <trkpt lat="42.42764" lon="0.09424">
        <ele>570.6</ele>
        <time>2017-07-02T12:21:11Z</time>
      </trkpt>
      <trkpt lat="42.42764" lon="0.09434">
        <ele>570.5</ele>
        <time>2017-07-02T12:21:12Z</time>
      </trkpt>
      <trkpt lat="42.42764" lon="0.09444">
        <ele>570.3</ele>
        <time>2017-07-02T12:21:13Z</time>
      </trkpt>
      <trkpt lat="42.42764" lon="0.09454">
        <ele>570.2</ele>
        <time>2017-07-02T12:21:14Z</time>
      </trkpt>
      <trkpt lat="42.42764" lon="0.09463">
        <ele>570.2</ele>
        <time>2017-07-02T12:21:15Z</time>
      </trkpt>
      <trkpt lat="42.42765" lon="0.09473">
        <ele>570.2</ele>
        <time>2017-07-02T12:21:16Z</time>
      </trkpt>
      <trkpt lat="42.42766" lon="0.09482">
        <ele>570.2</ele>
        <time>2017-07-02T12:21:17Z</time>
      </trkpt>
      <trkpt lat="42.42767" lon="0.09491">
        <ele>570.2</ele>
        <time>2017-07-02T12:21:18Z</time>
      </trkpt>
      <trkpt lat="42.42769" lon="0.09501">
        <ele>570.2</ele>
        <time>2017-07-02T12:21:19Z</time>
      </trkpt>
      <trkpt lat="42.4277" lon="0.0951">
        <ele>570.2</ele>
        <time>2017-07-02T12:21:20Z</time>
      </trkpt>
      <trkpt lat="42.42771" lon="0.0952">
        <ele>570.2</ele>
        <time>2017-07-02T12:21:21Z</time>
      </trkpt>
      <trkpt lat="42.42773" lon="0.0953">
        <ele>570.2</ele>
        <time>2017-07-02T12:21:22Z</time>
      </trkpt>
      <trkpt lat="42.42776" lon="0.09539">
        <ele>570.2</ele>
        <time>2017-07-02T12:21:23Z</time>
      </trkpt>
      <trkpt lat="42.42778" lon="0.09549">
        <ele>570.2</ele>
        <time>2017-07-02T12:21:24Z</time>
      </trkpt>
      <trkpt lat="42.4278" lon="0.09559">
        <ele>570.2</ele>
        <time>2017-07-02T12:21:25Z</time>
      </trkpt>
      <trkpt lat="42.42782" lon="0.09567">
        <ele>570.2</ele>
        <time>2017-07-02T12:21:26Z</time>
      </trkpt>
      <trkpt lat="42.42784" lon="0.09576">
        <ele>570.2</ele>
        <time>2017-07-02T12:21:27Z</time>
      </trkpt>
      <trkpt lat="42.42785" lon="0.09585">
        <ele>570.2</ele>
        <time>2017-07-02T12:21:28Z</time>
      </trkpt>
      <trkpt lat="42.42785" lon="0.09594">
        <ele>570.2</ele>
        <time>2017-07-02T12:21:29Z</time>
      </trkpt>
      <trkpt lat="42.42785" lon="0.09603">
        <ele>570.2</ele>
        <time>2017-07-02T12:21:30Z</time>
      </trkpt>
      <trkpt lat="42.42788" lon="0.09612">
        <ele>570.1</ele>
        <time>2017-07-02T12:21:31Z</time>
      </trkpt>
      <trkpt lat="42.42791" lon="0.09619">
        <ele>570</ele>
        <time>2017-07-02T12:21:32Z</time>
      </trkpt>
      <trkpt lat="42.42793" lon="0.09628">
        <ele>569.7</ele>
        <time>2017-07-02T12:21:33Z</time>
      </trkpt>
      <trkpt lat="42.42796" lon="0.09636">
        <ele>569.3</ele>
        <time>2017-07-02T12:21:34Z</time>
      </trkpt>
      <trkpt lat="42.42799" lon="0.09646">
        <ele>569.1</ele>
        <time>2017-07-02T12:21:35Z</time>
      </trkpt>
      <trkpt lat="42.42801" lon="0.09656">
        <ele>569</ele>
        <time>2017-07-02T12:21:36Z</time>
      </trkpt>
      <trkpt lat="42.42804" lon="0.09666">
        <ele>568.9</ele>
        <time>2017-07-02T12:21:37Z</time>
      </trkpt>
      <trkpt lat="42.42806" lon="0.09674">
        <ele>568.7</ele>
        <time>2017-07-02T12:21:38Z</time>
      </trkpt>
      <trkpt lat="42.4281" lon="0.09682">
        <ele>568.7</ele>
        <time>2017-07-02T12:21:39Z</time>
      </trkpt>
      <trkpt lat="42.42813" lon="0.09692">
        <ele>568.6</ele>
        <time>2017-07-02T12:21:40Z</time>
      </trkpt>
      <trkpt lat="42.42816" lon="0.09699">
        <ele>568.6</ele>
        <time>2017-07-02T12:21:41Z</time>
      </trkpt>
      <trkpt lat="42.4282" lon="0.09708">
        <ele>568.5</ele>
        <time>2017-07-02T12:21:42Z</time>
      </trkpt>
      <trkpt lat="42.42821" lon="0.09718">
        <ele>568.4</ele>
        <time>2017-07-02T12:21:43Z</time>
      </trkpt>
      <trkpt lat="42.4282" lon="0.09726">
        <ele>568.3</ele>
        <time>2017-07-02T12:21:44Z</time>
      </trkpt>
      <trkpt lat="42.42818" lon="0.09733">
        <ele>568.1</ele>
        <time>2017-07-02T12:21:45Z</time>
      </trkpt>
      <trkpt lat="42.42816" lon="0.0974">
        <ele>567.8</ele>
        <time>2017-07-02T12:21:46Z</time>
      </trkpt>
      <trkpt lat="42.42814" lon="0.09746">
        <ele>567.4</ele>
        <time>2017-07-02T12:21:47Z</time>
      </trkpt>
      <trkpt lat="42.42813" lon="0.09751">
        <ele>567.2</ele>
        <time>2017-07-02T12:21:48Z</time>
      </trkpt>
      <trkpt lat="42.42813" lon="0.09756">
        <ele>567.1</ele>
        <time>2017-07-02T12:21:49Z</time>
      </trkpt>
      <trkpt lat="42.42811" lon="0.09763">
        <ele>566.9</ele>
        <time>2017-07-02T12:21:50Z</time>
      </trkpt>
      <trkpt lat="42.4281" lon="0.09772">
        <ele>566.8</ele>
        <time>2017-07-02T12:21:51Z</time>
      </trkpt>
      <trkpt lat="42.4281" lon="0.0978">
        <ele>566.7</ele>
        <time>2017-07-02T12:21:52Z</time>
      </trkpt>
      <trkpt lat="42.4281" lon="0.09789">
        <ele>566.6</ele>
        <time>2017-07-02T12:21:53Z</time>
      </trkpt>
      <trkpt lat="42.42813" lon="0.09794">
        <ele>566.6</ele>
        <time>2017-07-02T12:21:54Z</time>
      </trkpt>
      <trkpt lat="42.42814" lon="0.09803">
        <ele>566.5</ele>
        <time>2017-07-02T12:21:55Z</time>
      </trkpt>
      <trkpt lat="42.42814" lon="0.09813">
        <ele>566.4</ele>
        <time>2017-07-02T12:21:56Z</time>
      </trkpt>
      <trkpt lat="42.42816" lon="0.09819">
        <ele>566.3</ele>
        <time>2017-07-02T12:21:57Z</time>
      </trkpt>
      <trkpt lat="42.42818" lon="0.09827">
        <ele>566</ele>
        <time>2017-07-02T12:21:58Z</time>
      </trkpt>
      <trkpt lat="42.42819" lon="0.09835">
        <ele>565.7</ele>
        <time>2017-07-02T12:21:59Z</time>
      </trkpt>
      <trkpt lat="42.42819" lon="0.09842">
        <ele>565.4</ele>
        <time>2017-07-02T12:22:00Z</time>
      </trkpt>
      <trkpt lat="42.42817" lon="0.09851">
        <ele>565.3</ele>
        <time>2017-07-02T12:22:01Z</time>
      </trkpt>
      <trkpt lat="42.42818" lon="0.0986">
        <ele>565.1</ele>
        <time>2017-07-02T12:22:02Z</time>
      </trkpt>
      <trkpt lat="42.42818" lon="0.09869">
        <ele>565</ele>
        <time>2017-07-02T12:22:03Z</time>
      </trkpt>
      <trkpt lat="42.42818" lon="0.09878">
        <ele>564.9</ele>
        <time>2017-07-02T12:22:04Z</time>
      </trkpt>
      <trkpt lat="42.42818" lon="0.09886">
        <ele>564.9</ele>
        <time>2017-07-02T12:22:05Z</time>
      </trkpt>
      <trkpt lat="42.42817" lon="0.09895">
        <ele>564.8</ele>
        <time>2017-07-02T12:22:06Z</time>
      </trkpt>
      <trkpt lat="42.42816" lon="0.09904">
        <ele>564.8</ele>
        <time>2017-07-02T12:22:07Z</time>
      </trkpt>
      <trkpt lat="42.42816" lon="0.09912">
        <ele>564.8</ele>
        <time>2017-07-02T12:22:08Z</time>
      </trkpt>
      <trkpt lat="42.42816" lon="0.09921">
        <ele>564.8</ele>
        <time>2017-07-02T12:22:09Z</time>
      </trkpt>
      <trkpt lat="42.42818" lon="0.0993">
        <ele>564.8</ele>
        <time>2017-07-02T12:22:10Z</time>
      </trkpt>
      <trkpt lat="42.4282" lon="0.09938">
        <ele>564.8</ele>
        <time>2017-07-02T12:22:11Z</time>
      </trkpt>
      <trkpt lat="42.42822" lon="0.09948">
        <ele>564.9</ele>
        <time>2017-07-02T12:22:12Z</time>
      </trkpt>
      <trkpt lat="42.42824" lon="0.09956">
        <ele>564.9</ele>
        <time>2017-07-02T12:22:13Z</time>
      </trkpt>
      <trkpt lat="42.42821" lon="0.09964">
        <ele>564.9</ele>
        <time>2017-07-02T12:22:14Z</time>
      </trkpt>
      <trkpt lat="42.42822" lon="0.09971">
        <ele>564.9</ele>
        <time>2017-07-02T12:22:15Z</time>
      </trkpt>
      <trkpt lat="42.42821" lon="0.0998">
        <ele>564.9</ele>
        <time>2017-07-02T12:22:16Z</time>
      </trkpt>
      <trkpt lat="42.42823" lon="0.09988">
        <ele>564.9</ele>
        <time>2017-07-02T12:22:17Z</time>
      </trkpt>
      <trkpt lat="42.42823" lon="0.09997">
        <ele>564.9</ele>
        <time>2017-07-02T12:22:18Z</time>
      </trkpt>
      <trkpt lat="42.42823" lon="0.10005">
        <ele>565</ele>
        <time>2017-07-02T12:22:19Z</time>
      </trkpt>
      <trkpt lat="42.42822" lon="0.10013">
        <ele>565</ele>
        <time>2017-07-02T12:22:20Z</time>
      </trkpt>
      <trkpt lat="42.42821" lon="0.10021">
        <ele>565</ele>
        <time>2017-07-02T12:22:21Z</time>
      </trkpt>
      <trkpt lat="42.4282" lon="0.10029">
        <ele>565</ele>
        <time>2017-07-02T12:22:22Z</time>
      </trkpt>
      <trkpt lat="42.4282" lon="0.10037">
        <ele>565</ele>
        <time>2017-07-02T12:22:23Z</time>
      </trkpt>
      <trkpt lat="42.4282" lon="0.10045">
        <ele>565</ele>
        <time>2017-07-02T12:22:24Z</time>
      </trkpt>
      <trkpt lat="42.42822" lon="0.10053">
        <ele>565</ele>
        <time>2017-07-02T12:22:25Z</time>
      </trkpt>
      <trkpt lat="42.42823" lon="0.1006">
        <ele>565</ele>
        <time>2017-07-02T12:22:26Z</time>
      </trkpt>
      <trkpt lat="42.42825" lon="0.10068">
        <ele>564.9</ele>
        <time>2017-07-02T12:22:27Z</time>
      </trkpt>
      <trkpt lat="42.42826" lon="0.10077">
        <ele>564.9</ele>
        <time>2017-07-02T12:22:28Z</time>
      </trkpt>
      <trkpt lat="42.42829" lon="0.10084">
        <ele>564.9</ele>
        <time>2017-07-02T12:22:29Z</time>
      </trkpt>
      <trkpt lat="42.4283" lon="0.10091">
        <ele>564.8</ele>
        <time>2017-07-02T12:22:30Z</time>
      </trkpt>
      <trkpt lat="42.42832" lon="0.10099">
        <ele>564.8</ele>
        <time>2017-07-02T12:22:31Z</time>
      </trkpt>
      <trkpt lat="42.42832" lon="0.10104">
        <ele>564.8</ele>
        <time>2017-07-02T12:22:32Z</time>
      </trkpt>
      <trkpt lat="42.42834" lon="0.10111">
        <ele>564.7</ele>
        <time>2017-07-02T12:22:33Z</time>
      </trkpt>
      <trkpt lat="42.42837" lon="0.10118">
        <ele>564.7</ele>
        <time>2017-07-02T12:22:34Z</time>
      </trkpt>
      <trkpt lat="42.42841" lon="0.10124">
        <ele>564.7</ele>
        <time>2017-07-02T12:22:35Z</time>
      </trkpt>
      <trkpt lat="42.42845" lon="0.10127">
        <ele>564.6</ele>
        <time>2017-07-02T12:22:36Z</time>
      </trkpt>
      <trkpt lat="42.42848" lon="0.10131">
        <ele>564.6</ele>
        <time>2017-07-02T12:22:37Z</time>
      </trkpt>
      <trkpt lat="42.42853" lon="0.10135">
        <ele>564.5</ele>
        <time>2017-07-02T12:22:38Z</time>
      </trkpt>
      <trkpt lat="42.42856" lon="0.1014">
        <ele>564.5</ele>
        <time>2017-07-02T12:22:39Z</time>
      </trkpt>
      <trkpt lat="42.42858" lon="0.10146">
        <ele>564.5</ele>
        <time>2017-07-02T12:22:40Z</time>
      </trkpt>
      <trkpt lat="42.4286" lon="0.10152">
        <ele>564.4</ele>
        <time>2017-07-02T12:22:41Z</time>
      </trkpt>
      <trkpt lat="42.42861" lon="0.10159">
        <ele>564.4</ele>
        <time>2017-07-02T12:22:42Z</time>
      </trkpt>
      <trkpt lat="42.42862" lon="0.10165">
        <ele>564.4</ele>
        <time>2017-07-02T12:22:43Z</time>
      </trkpt>
      <trkpt lat="42.42862" lon="0.10173">
        <ele>564.3</ele>
        <time>2017-07-02T12:22:44Z</time>
      </trkpt>
      <trkpt lat="42.42861" lon="0.10181">
        <ele>564.3</ele>
        <time>2017-07-02T12:22:45Z</time>
      </trkpt>
      <trkpt lat="42.42858" lon="0.10188">
        <ele>564.2</ele>
        <time>2017-07-02T12:22:46Z</time>
      </trkpt>
      <trkpt lat="42.42856" lon="0.10196">
        <ele>564.2</ele>
        <time>2017-07-02T12:22:47Z</time>
      </trkpt>
      <trkpt lat="42.42855" lon="0.10203">
        <ele>564.1</ele>
        <time>2017-07-02T12:22:48Z</time>
      </trkpt>
      <trkpt lat="42.42856" lon="0.1021">
        <ele>563.6</ele>
        <time>2017-07-02T12:22:49Z</time>
      </trkpt>
      <trkpt lat="42.42857" lon="0.10217">
        <ele>563.5</ele>
        <time>2017-07-02T12:22:50Z</time>
      </trkpt>
      <trkpt lat="42.4286" lon="0.10224">
        <ele>563.4</ele>
        <time>2017-07-02T12:22:51Z</time>
      </trkpt>
      <trkpt lat="42.42868" lon="0.10224">
        <ele>563.3</ele>
        <time>2017-07-02T12:22:52Z</time>
      </trkpt>
      <trkpt lat="42.4287" lon="0.10231">
        <ele>563.3</ele>
        <time>2017-07-02T12:22:53Z</time>
      </trkpt>
      <trkpt lat="42.42872" lon="0.10236">
        <ele>563.2</ele>
        <time>2017-07-02T12:22:54Z</time>
      </trkpt>
      <trkpt lat="42.42873" lon="0.10244">
        <ele>563.2</ele>
        <time>2017-07-02T12:22:55Z</time>
      </trkpt>
      <trkpt lat="42.42874" lon="0.10251">
        <ele>563.1</ele>
        <time>2017-07-02T12:22:56Z</time>
      </trkpt>
      <trkpt lat="42.42875" lon="0.10257">
        <ele>563.1</ele>
        <time>2017-07-02T12:22:57Z</time>
      </trkpt>
      <trkpt lat="42.42875" lon="0.10266">
        <ele>563</ele>
        <time>2017-07-02T12:22:58Z</time>
      </trkpt>
      <trkpt lat="42.42874" lon="0.10274">
        <ele>562.9</ele>
        <time>2017-07-02T12:22:59Z</time>
      </trkpt>
      <trkpt lat="42.42873" lon="0.10282">
        <ele>562.8</ele>
        <time>2017-07-02T12:23:00Z</time>
      </trkpt>
      <trkpt lat="42.42872" lon="0.1029">
        <ele>562.7</ele>
        <time>2017-07-02T12:23:01Z</time>
      </trkpt>
      <trkpt lat="42.42871" lon="0.10299">
        <ele>562.6</ele>
        <time>2017-07-02T12:23:02Z</time>
      </trkpt>
      <trkpt lat="42.4287" lon="0.10306">
        <ele>562.5</ele>
        <time>2017-07-02T12:23:03Z</time>
      </trkpt>
      <trkpt lat="42.42869" lon="0.10313">
        <ele>562.4</ele>
        <time>2017-07-02T12:23:04Z</time>
      </trkpt>
      <trkpt lat="42.42868" lon="0.10321">
        <ele>562.3</ele>
        <time>2017-07-02T12:23:05Z</time>
      </trkpt>
      <trkpt lat="42.42867" lon="0.10328">
        <ele>562.2</ele>
        <time>2017-07-02T12:23:06Z</time>
      </trkpt>
      <trkpt lat="42.42866" lon="0.10335">
        <ele>562.1</ele>
        <time>2017-07-02T12:23:07Z</time>
      </trkpt>
      <trkpt lat="42.42866" lon="0.10341">
        <ele>561.9</ele>
        <time>2017-07-02T12:23:08Z</time>
      </trkpt>
      <trkpt lat="42.42865" lon="0.10348">
        <ele>561.8</ele>
        <time>2017-07-02T12:23:09Z</time>
      </trkpt>
      <trkpt lat="42.42864" lon="0.10355">
        <ele>561.7</ele>
        <time>2017-07-02T12:23:10Z</time>
      </trkpt>
      <trkpt lat="42.42863" lon="0.10363">
        <ele>561.7</ele>
        <time>2017-07-02T12:23:11Z</time>
      </trkpt>
      <trkpt lat="42.42862" lon="0.1037">
        <ele>561.6</ele>
        <time>2017-07-02T12:23:12Z</time>
      </trkpt>
      <trkpt lat="42.42861" lon="0.10377">
        <ele>561.5</ele>
        <time>2017-07-02T12:23:13Z</time>
      </trkpt>
      <trkpt lat="42.42861" lon="0.10385">
        <ele>561.5</ele>
        <time>2017-07-02T12:23:14Z</time>
      </trkpt>
      <trkpt lat="42.42859" lon="0.10392">
        <ele>561.4</ele>
        <time>2017-07-02T12:23:15Z</time>
      </trkpt>
      <trkpt lat="42.42858" lon="0.10399">
        <ele>561.4</ele>
        <time>2017-07-02T12:23:16Z</time>
      </trkpt>
      <trkpt lat="42.42857" lon="0.10406">
        <ele>561.2</ele>
        <time>2017-07-02T12:23:17Z</time>
      </trkpt>
      <trkpt lat="42.42856" lon="0.10414">
        <ele>561.1</ele>
        <time>2017-07-02T12:23:18Z</time>
      </trkpt>
      <trkpt lat="42.42855" lon="0.10421">
        <ele>561</ele>
        <time>2017-07-02T12:23:19Z</time>
      </trkpt>
      <trkpt lat="42.42855" lon="0.10428">
        <ele>560.9</ele>
        <time>2017-07-02T12:23:20Z</time>
      </trkpt>
      <trkpt lat="42.42855" lon="0.10436">
        <ele>560.8</ele>
        <time>2017-07-02T12:23:21Z</time>
      </trkpt>
      <trkpt lat="42.42853" lon="0.10443">
        <ele>560.6</ele>
        <time>2017-07-02T12:23:22Z</time>
      </trkpt>
      <trkpt lat="42.42852" lon="0.1045">
        <ele>560.5</ele>
        <time>2017-07-02T12:23:23Z</time>
      </trkpt>
      <trkpt lat="42.4285" lon="0.10458">
        <ele>560.4</ele>
        <time>2017-07-02T12:23:24Z</time>
      </trkpt>
      <trkpt lat="42.4285" lon="0.10466">
        <ele>560.3</ele>
        <time>2017-07-02T12:23:25Z</time>
      </trkpt>
      <trkpt lat="42.4285" lon="0.10473">
        <ele>560.2</ele>
        <time>2017-07-02T12:23:26Z</time>
      </trkpt>
      <trkpt lat="42.42849" lon="0.1048">
        <ele>560.1</ele>
        <time>2017-07-02T12:23:27Z</time>
      </trkpt>
      <trkpt lat="42.42847" lon="0.10487">
        <ele>559.8</ele>
        <time>2017-07-02T12:23:28Z</time>
      </trkpt>
      <trkpt lat="42.42847" lon="0.10495">
        <ele>559.3</ele>
        <time>2017-07-02T12:23:29Z</time>
      </trkpt>
      <trkpt lat="42.42846" lon="0.10502">
        <ele>558.9</ele>
        <time>2017-07-02T12:23:30Z</time>
      </trkpt>
      <trkpt lat="42.42845" lon="0.10509">
        <ele>558.4</ele>
        <time>2017-07-02T12:23:31Z</time>
      </trkpt>
      <trkpt lat="42.42844" lon="0.10516">
        <ele>558.2</ele>
        <time>2017-07-02T12:23:32Z</time>
      </trkpt>
      <trkpt lat="42.42843" lon="0.10523">
        <ele>558</ele>
        <time>2017-07-02T12:23:33Z</time>
      </trkpt>
      <trkpt lat="42.42842" lon="0.1053">
        <ele>557.8</ele>
        <time>2017-07-02T12:23:34Z</time>
      </trkpt>
      <trkpt lat="42.42842" lon="0.10537">
        <ele>557.6</ele>
        <time>2017-07-02T12:23:35Z</time>
      </trkpt>
      <trkpt lat="42.42841" lon="0.10544">
        <ele>557.3</ele>
        <time>2017-07-02T12:23:36Z</time>
      </trkpt>
      <trkpt lat="42.42839" lon="0.10552">
        <ele>557.1</ele>
        <time>2017-07-02T12:23:37Z</time>
      </trkpt>
      <trkpt lat="42.42839" lon="0.10559">
        <ele>557</ele>
        <time>2017-07-02T12:23:38Z</time>
      </trkpt>
      <trkpt lat="42.42837" lon="0.10566">
        <ele>556.8</ele>
        <time>2017-07-02T12:23:39Z</time>
      </trkpt>
      <trkpt lat="42.42836" lon="0.10573">
        <ele>556.7</ele>
        <time>2017-07-02T12:23:40Z</time>
      </trkpt>
      <trkpt lat="42.42835" lon="0.1058">
        <ele>556.4</ele>
        <time>2017-07-02T12:23:41Z</time>
      </trkpt>
      <trkpt lat="42.42834" lon="0.10587">
        <ele>556.2</ele>
        <time>2017-07-02T12:23:42Z</time>
      </trkpt>
      <trkpt lat="42.42833" lon="0.10594">
        <ele>556</ele>
        <time>2017-07-02T12:23:43Z</time>
      </trkpt>
      <trkpt lat="42.42833" lon="0.10602">
        <ele>556</ele>
        <time>2017-07-02T12:23:44Z</time>
      </trkpt>
      <trkpt lat="42.42832" lon="0.10608">
        <ele>556</ele>
        <time>2017-07-02T12:23:45Z</time>
      </trkpt>
      <trkpt lat="42.42831" lon="0.10616">
        <ele>556</ele>
        <time>2017-07-02T12:23:46Z</time>
      </trkpt>
      <trkpt lat="42.42831" lon="0.10623">
        <ele>556</ele>
        <time>2017-07-02T12:23:47Z</time>
      </trkpt>
      <trkpt lat="42.42831" lon="0.10631">
        <ele>556</ele>
        <time>2017-07-02T12:23:48Z</time>
      </trkpt>
      <trkpt lat="42.4283" lon="0.10639">
        <ele>556</ele>
        <time>2017-07-02T12:23:49Z</time>
      </trkpt>
      <trkpt lat="42.42831" lon="0.10648">
        <ele>556</ele>
        <time>2017-07-02T12:23:50Z</time>
      </trkpt>
      <trkpt lat="42.42832" lon="0.10656">
        <ele>556</ele>
        <time>2017-07-02T12:23:51Z</time>
      </trkpt>
      <trkpt lat="42.42832" lon="0.10663">
        <ele>556</ele>
        <time>2017-07-02T12:23:52Z</time>
      </trkpt>
      <trkpt lat="42.42832" lon="0.10672">
        <ele>556</ele>
        <time>2017-07-02T12:23:53Z</time>
      </trkpt>
      <trkpt lat="42.42833" lon="0.10679">
        <ele>556</ele>
        <time>2017-07-02T12:23:54Z</time>
      </trkpt>
      <trkpt lat="42.42833" lon="0.10687">
        <ele>556</ele>
        <time>2017-07-02T12:23:55Z</time>
      </trkpt>
      <trkpt lat="42.42833" lon="0.10695">
        <ele>556</ele>
        <time>2017-07-02T12:23:56Z</time>
      </trkpt>
      <trkpt lat="42.42833" lon="0.10703">
        <ele>555.9</ele>
        <time>2017-07-02T12:23:57Z</time>
      </trkpt>
      <trkpt lat="42.42834" lon="0.10711">
        <ele>555.8</ele>
        <time>2017-07-02T12:23:58Z</time>
      </trkpt>
      <trkpt lat="42.42833" lon="0.10718">
        <ele>555.7</ele>
        <time>2017-07-02T12:23:59Z</time>
      </trkpt>
      <trkpt lat="42.42833" lon="0.10725">
        <ele>555.5</ele>
        <time>2017-07-02T12:24:00Z</time>
      </trkpt>
      <trkpt lat="42.42833" lon="0.10733">
        <ele>555.3</ele>
        <time>2017-07-02T12:24:01Z</time>
      </trkpt>
      <trkpt lat="42.42832" lon="0.1074">
        <ele>555.3</ele>
        <time>2017-07-02T12:24:02Z</time>
      </trkpt>
      <trkpt lat="42.42832" lon="0.10747">
        <ele>555.2</ele>
        <time>2017-07-02T12:24:03Z</time>
      </trkpt>
      <trkpt lat="42.42832" lon="0.10754">
        <ele>555.2</ele>
        <time>2017-07-02T12:24:04Z</time>
      </trkpt>
      <trkpt lat="42.42831" lon="0.10761">
        <ele>555.1</ele>
        <time>2017-07-02T12:24:05Z</time>
      </trkpt>
      <trkpt lat="42.42831" lon="0.10768">
        <ele>555.1</ele>
        <time>2017-07-02T12:24:06Z</time>
      </trkpt>
      <trkpt lat="42.42831" lon="0.10775">
        <ele>555</ele>
        <time>2017-07-02T12:24:07Z</time>
      </trkpt>
      <trkpt lat="42.42832" lon="0.10783">
        <ele>554.9</ele>
        <time>2017-07-02T12:24:08Z</time>
      </trkpt>
      <trkpt lat="42.42832" lon="0.1079">
        <ele>554.9</ele>
        <time>2017-07-02T12:24:09Z</time>
      </trkpt>
      <trkpt lat="42.42832" lon="0.10797">
        <ele>554.9</ele>
        <time>2017-07-02T12:24:10Z</time>
      </trkpt>
      <trkpt lat="42.42832" lon="0.10805">
        <ele>554.8</ele>
        <time>2017-07-02T12:24:11Z</time>
      </trkpt>
      <trkpt lat="42.42831" lon="0.10812">
        <ele>554.8</ele>
        <time>2017-07-02T12:24:12Z</time>
      </trkpt>
      <trkpt lat="42.42832" lon="0.1082">
        <ele>554.8</ele>
        <time>2017-07-02T12:24:13Z</time>
      </trkpt>
      <trkpt lat="42.42832" lon="0.10827">
        <ele>554.7</ele>
        <time>2017-07-02T12:24:14Z</time>
      </trkpt>
      <trkpt lat="42.42833" lon="0.10834">
        <ele>554.7</ele>
        <time>2017-07-02T12:24:15Z</time>
      </trkpt>
      <trkpt lat="42.42834" lon="0.10842">
        <ele>554.7</ele>
        <time>2017-07-02T12:24:16Z</time>
      </trkpt>
      <trkpt lat="42.42834" lon="0.10849">
        <ele>554.7</ele>
        <time>2017-07-02T12:24:17Z</time>
      </trkpt>
      <trkpt lat="42.42835" lon="0.10857">
        <ele>554.7</ele>
        <time>2017-07-02T12:24:18Z</time>
      </trkpt>
      <trkpt lat="42.42834" lon="0.10865">
        <ele>554.7</ele>
        <time>2017-07-02T12:24:19Z</time>
      </trkpt>
      <trkpt lat="42.42835" lon="0.10873">
        <ele>554.7</ele>
        <time>2017-07-02T12:24:20Z</time>
      </trkpt>
      <trkpt lat="42.42835" lon="0.1088">
        <ele>554.7</ele>
        <time>2017-07-02T12:24:21Z</time>
      </trkpt>
      <trkpt lat="42.42834" lon="0.10888">
        <ele>554.8</ele>
        <time>2017-07-02T12:24:22Z</time>
      </trkpt>
      <trkpt lat="42.42835" lon="0.10894">
        <ele>554.8</ele>
        <time>2017-07-02T12:24:23Z</time>
      </trkpt>
      <trkpt lat="42.42836" lon="0.10902">
        <ele>554.8</ele>
        <time>2017-07-02T12:24:24Z</time>
      </trkpt>
      <trkpt lat="42.42837" lon="0.1091">
        <ele>554.8</ele>
        <time>2017-07-02T12:24:25Z</time>
      </trkpt>
      <trkpt lat="42.42835" lon="0.10918">
        <ele>554.8</ele>
        <time>2017-07-02T12:24:26Z</time>
      </trkpt>
      <trkpt lat="42.42836" lon="0.10925">
        <ele>554.9</ele>
        <time>2017-07-02T12:24:27Z</time>
      </trkpt>
      <trkpt lat="42.42838" lon="0.10933">
        <ele>554.9</ele>
        <time>2017-07-02T12:24:28Z</time>
      </trkpt>
      <trkpt lat="42.42839" lon="0.10941">
        <ele>555</ele>
        <time>2017-07-02T12:24:29Z</time>
      </trkpt>
      <trkpt lat="42.42841" lon="0.10949">
        <ele>555</ele>
        <time>2017-07-02T12:24:30Z</time>
      </trkpt>
      <trkpt lat="42.42842" lon="0.10957">
        <ele>554.9</ele>
        <time>2017-07-02T12:24:31Z</time>
      </trkpt>
      <trkpt lat="42.42845" lon="0.10964">
        <ele>554.9</ele>
        <time>2017-07-02T12:24:32Z</time>
      </trkpt>
      <trkpt lat="42.42846" lon="0.10972">
        <ele>554.8</ele>
        <time>2017-07-02T12:24:33Z</time>
      </trkpt>
      <trkpt lat="42.42847" lon="0.1098">
        <ele>554.8</ele>
        <time>2017-07-02T12:24:34Z</time>
      </trkpt>
      <trkpt lat="42.42849" lon="0.10986">
        <ele>554.7</ele>
        <time>2017-07-02T12:24:35Z</time>
      </trkpt>
      <trkpt lat="42.42854" lon="0.10992">
        <ele>554.5</ele>
        <time>2017-07-02T12:24:36Z</time>
      </trkpt>
      <trkpt lat="42.42857" lon="0.11">
        <ele>554.1</ele>
        <time>2017-07-02T12:24:37Z</time>
      </trkpt>
      <trkpt lat="42.4286" lon="0.11006">
        <ele>553.8</ele>
        <time>2017-07-02T12:24:38Z</time>
      </trkpt>
      <trkpt lat="42.42863" lon="0.11013">
        <ele>553.4</ele>
        <time>2017-07-02T12:24:39Z</time>
      </trkpt>
      <trkpt lat="42.42865" lon="0.11021">
        <ele>553.1</ele>
        <time>2017-07-02T12:24:40Z</time>
      </trkpt>
      <trkpt lat="42.42868" lon="0.11026">
        <ele>552.9</ele>
        <time>2017-07-02T12:24:41Z</time>
      </trkpt>
      <trkpt lat="42.4287" lon="0.11033">
        <ele>552.8</ele>
        <time>2017-07-02T12:24:42Z</time>
      </trkpt>
      <trkpt lat="42.42873" lon="0.11041">
        <ele>552.8</ele>
        <time>2017-07-02T12:24:43Z</time>
      </trkpt>
      <trkpt lat="42.42876" lon="0.11047">
        <ele>552.7</ele>
        <time>2017-07-02T12:24:44Z</time>
      </trkpt>
      <trkpt lat="42.42877" lon="0.11053">
        <ele>552.7</ele>
        <time>2017-07-02T12:24:45Z</time>
      </trkpt>
      <trkpt lat="42.4288" lon="0.1106">
        <ele>552.7</ele>
        <time>2017-07-02T12:24:46Z</time>
      </trkpt>
      <trkpt lat="42.42882" lon="0.11064">
        <ele>552.6</ele>
        <time>2017-07-02T12:24:47Z</time>
      </trkpt>
      <trkpt lat="42.42883" lon="0.11071">
        <ele>552.6</ele>
        <time>2017-07-02T12:24:48Z</time>
      </trkpt>
      <trkpt lat="42.42884" lon="0.11077">
        <ele>552.6</ele>
        <time>2017-07-02T12:24:49Z</time>
      </trkpt>
      <trkpt lat="42.42883" lon="0.11083">
        <ele>552.6</ele>
        <time>2017-07-02T12:24:50Z</time>
      </trkpt>
      <trkpt lat="42.42883" lon="0.11091">
        <ele>552.6</ele>
        <time>2017-07-02T12:24:51Z</time>
      </trkpt>
      <trkpt lat="42.42881" lon="0.11097">
        <ele>552.6</ele>
        <time>2017-07-02T12:24:52Z</time>
      </trkpt>
      <trkpt lat="42.42881" lon="0.11104">
        <ele>552.6</ele>
        <time>2017-07-02T12:24:53Z</time>
      </trkpt>
      <trkpt lat="42.4288" lon="0.11111">
        <ele>552.6</ele>
        <time>2017-07-02T12:24:54Z</time>
      </trkpt>
      <trkpt lat="42.42878" lon="0.11117">
        <ele>552.6</ele>
        <time>2017-07-02T12:24:55Z</time>
      </trkpt>
      <trkpt lat="42.42878" lon="0.11124">
        <ele>552.6</ele>
        <time>2017-07-02T12:24:56Z</time>
      </trkpt>
      <trkpt lat="42.42876" lon="0.1113">
        <ele>552.6</ele>
        <time>2017-07-02T12:24:57Z</time>
      </trkpt>
      <trkpt lat="42.42875" lon="0.11136">
        <ele>552.6</ele>
        <time>2017-07-02T12:24:58Z</time>
      </trkpt>
      <trkpt lat="42.42873" lon="0.11142">
        <ele>552.6</ele>
        <time>2017-07-02T12:24:59Z</time>
      </trkpt>
      <trkpt lat="42.42871" lon="0.11149">
        <ele>552.6</ele>
        <time>2017-07-02T12:25:00Z</time>
      </trkpt>
      <trkpt lat="42.42869" lon="0.11156">
        <ele>552.6</ele>
        <time>2017-07-02T12:25:01Z</time>
      </trkpt>
      <trkpt lat="42.42868" lon="0.11163">
        <ele>552.6</ele>
        <time>2017-07-02T12:25:02Z</time>
      </trkpt>
      <trkpt lat="42.42866" lon="0.11169">
        <ele>552.6</ele>
        <time>2017-07-02T12:25:03Z</time>
      </trkpt>
      <trkpt lat="42.42866" lon="0.11177">
        <ele>552.6</ele>
        <time>2017-07-02T12:25:04Z</time>
      </trkpt>
      <trkpt lat="42.42865" lon="0.11183">
        <ele>552.6</ele>
        <time>2017-07-02T12:25:05Z</time>
      </trkpt>
      <trkpt lat="42.42863" lon="0.1119">
        <ele>552.6</ele>
        <time>2017-07-02T12:25:06Z</time>
      </trkpt>
      <trkpt lat="42.42862" lon="0.11196">
        <ele>552.6</ele>
        <time>2017-07-02T12:25:07Z</time>
      </trkpt>
      <trkpt lat="42.4286" lon="0.11203">
        <ele>552.6</ele>
        <time>2017-07-02T12:25:08Z</time>
      </trkpt>
      <trkpt lat="42.42858" lon="0.1121">
        <ele>552.6</ele>
        <time>2017-07-02T12:25:09Z</time>
      </trkpt>
      <trkpt lat="42.42857" lon="0.11217">
        <ele>552.6</ele>
        <time>2017-07-02T12:25:10Z</time>
      </trkpt>
      <trkpt lat="42.42855" lon="0.11224">
        <ele>552.6</ele>
        <time>2017-07-02T12:25:11Z</time>
      </trkpt>
      <trkpt lat="42.42854" lon="0.1123">
        <ele>552.6</ele>
        <time>2017-07-02T12:25:12Z</time>
      </trkpt>
      <trkpt lat="42.42852" lon="0.11236">
        <ele>552.6</ele>
        <time>2017-07-02T12:25:13Z</time>
      </trkpt>
      <trkpt lat="42.4285" lon="0.11244">
        <ele>552.6</ele>
        <time>2017-07-02T12:25:14Z</time>
      </trkpt>
      <trkpt lat="42.42848" lon="0.1125">
        <ele>552.6</ele>
        <time>2017-07-02T12:25:15Z</time>
      </trkpt>
      <trkpt lat="42.42846" lon="0.11257">
        <ele>552.6</ele>
        <time>2017-07-02T12:25:16Z</time>
      </trkpt>
      <trkpt lat="42.42845" lon="0.11264">
        <ele>552.5</ele>
        <time>2017-07-02T12:25:17Z</time>
      </trkpt>
      <trkpt lat="42.42842" lon="0.11271">
        <ele>552.5</ele>
        <time>2017-07-02T12:25:18Z</time>
      </trkpt>
      <trkpt lat="42.42839" lon="0.11278">
        <ele>552.5</ele>
        <time>2017-07-02T12:25:19Z</time>
      </trkpt>
      <trkpt lat="42.42836" lon="0.11285">
        <ele>552.4</ele>
        <time>2017-07-02T12:25:20Z</time>
      </trkpt>
      <trkpt lat="42.42833" lon="0.11292">
        <ele>552.3</ele>
        <time>2017-07-02T12:25:21Z</time>
      </trkpt>
      <trkpt lat="42.4283" lon="0.11298">
        <ele>552.3</ele>
        <time>2017-07-02T12:25:22Z</time>
      </trkpt>
      <trkpt lat="42.42827" lon="0.11305">
        <ele>552.2</ele>
        <time>2017-07-02T12:25:23Z</time>
      </trkpt>
      <trkpt lat="42.42824" lon="0.11312">
        <ele>551.9</ele>
        <time>2017-07-02T12:25:24Z</time>
      </trkpt>
      <trkpt lat="42.42821" lon="0.11318">
        <ele>551.6</ele>
        <time>2017-07-02T12:25:25Z</time>
      </trkpt>
      <trkpt lat="42.42818" lon="0.11326">
        <ele>551.3</ele>
        <time>2017-07-02T12:25:26Z</time>
      </trkpt>
      <trkpt lat="42.42815" lon="0.11332">
        <ele>551.2</ele>
        <time>2017-07-02T12:25:27Z</time>
      </trkpt>
      <trkpt lat="42.42811" lon="0.11339">
        <ele>551.1</ele>
        <time>2017-07-02T12:25:28Z</time>
      </trkpt>
      <trkpt lat="42.42808" lon="0.11345">
        <ele>551</ele>
        <time>2017-07-02T12:25:29Z</time>
      </trkpt>
      <trkpt lat="42.42804" lon="0.11351">
        <ele>550.9</ele>
        <time>2017-07-02T12:25:30Z</time>
      </trkpt>
      <trkpt lat="42.42801" lon="0.11357">
        <ele>550.9</ele>
        <time>2017-07-02T12:25:31Z</time>
      </trkpt>
      <trkpt lat="42.42798" lon="0.11363">
        <ele>550.8</ele>
        <time>2017-07-02T12:25:32Z</time>
      </trkpt>
      <trkpt lat="42.42794" lon="0.11369">
        <ele>550.7</ele>
        <time>2017-07-02T12:25:33Z</time>
      </trkpt>
      <trkpt lat="42.4279" lon="0.11375">
        <ele>550.7</ele>
        <time>2017-07-02T12:25:34Z</time>
      </trkpt>
      <trkpt lat="42.42787" lon="0.11381">
        <ele>550.7</ele>
        <time>2017-07-02T12:25:35Z</time>
      </trkpt>
      <trkpt lat="42.42784" lon="0.11387">
        <ele>550.6</ele>
        <time>2017-07-02T12:25:36Z</time>
      </trkpt>
      <trkpt lat="42.42781" lon="0.11392">
        <ele>550.6</ele>
        <time>2017-07-02T12:25:37Z</time>
      </trkpt>
      <trkpt lat="42.42777" lon="0.11398">
        <ele>550.5</ele>
        <time>2017-07-02T12:25:38Z</time>
      </trkpt>
      <trkpt lat="42.42773" lon="0.11403">
        <ele>550.5</ele>
        <time>2017-07-02T12:25:39Z</time>
      </trkpt>
      <trkpt lat="42.42769" lon="0.11408">
        <ele>550.5</ele>
        <time>2017-07-02T12:25:40Z</time>
      </trkpt>
      <trkpt lat="42.42765" lon="0.11413">
        <ele>550.4</ele>
        <time>2017-07-02T12:25:41Z</time>
      </trkpt>
      <trkpt lat="42.42761" lon="0.11419">
        <ele>550.4</ele>
        <time>2017-07-02T12:25:42Z</time>
      </trkpt>
      <trkpt lat="42.42757" lon="0.11423">
        <ele>550.4</ele>
        <time>2017-07-02T12:25:43Z</time>
      </trkpt>
      <trkpt lat="42.42753" lon="0.11428">
        <ele>550.4</ele>
        <time>2017-07-02T12:25:44Z</time>
      </trkpt>
      <trkpt lat="42.42749" lon="0.11433">
        <ele>550.4</ele>
        <time>2017-07-02T12:25:45Z</time>
      </trkpt>
      <trkpt lat="42.42745" lon="0.11437">
        <ele>550.4</ele>
        <time>2017-07-02T12:25:46Z</time>
      </trkpt>
      <trkpt lat="42.4274" lon="0.11441">
        <ele>550.4</ele>
        <time>2017-07-02T12:25:47Z</time>
      </trkpt>
      <trkpt lat="42.42735" lon="0.11445">
        <ele>550.4</ele>
        <time>2017-07-02T12:25:48Z</time>
      </trkpt>
      <trkpt lat="42.42731" lon="0.1145">
        <ele>550.4</ele>
        <time>2017-07-02T12:25:49Z</time>
      </trkpt>
      <trkpt lat="42.42727" lon="0.11454">
        <ele>550.4</ele>
        <time>2017-07-02T12:25:50Z</time>
      </trkpt>
      <trkpt lat="42.42723" lon="0.11458">
        <ele>550.4</ele>
        <time>2017-07-02T12:25:51Z</time>
      </trkpt>
      <trkpt lat="42.42718" lon="0.11464">
        <ele>550.3</ele>
        <time>2017-07-02T12:25:52Z</time>
      </trkpt>
      <trkpt lat="42.42714" lon="0.11468">
        <ele>550.3</ele>
        <time>2017-07-02T12:25:53Z</time>
      </trkpt>
      <trkpt lat="42.4271" lon="0.11474">
        <ele>550.3</ele>
        <time>2017-07-02T12:25:54Z</time>
      </trkpt>
      <trkpt lat="42.42706" lon="0.11478">
        <ele>550.3</ele>
        <time>2017-07-02T12:25:55Z</time>
      </trkpt>
      <trkpt lat="42.42702" lon="0.11483">
        <ele>550.2</ele>
        <time>2017-07-02T12:25:56Z</time>
      </trkpt>
      <trkpt lat="42.42698" lon="0.11488">
        <ele>550.2</ele>
        <time>2017-07-02T12:25:57Z</time>
      </trkpt>
      <trkpt lat="42.42694" lon="0.11492">
        <ele>550.2</ele>
        <time>2017-07-02T12:25:58Z</time>
      </trkpt>
      <trkpt lat="42.4269" lon="0.11497">
        <ele>550.1</ele>
        <time>2017-07-02T12:25:59Z</time>
      </trkpt>
      <trkpt lat="42.42685" lon="0.11502">
        <ele>550</ele>
        <time>2017-07-02T12:26:00Z</time>
      </trkpt>
      <trkpt lat="42.42681" lon="0.11507">
        <ele>549.7</ele>
        <time>2017-07-02T12:26:01Z</time>
      </trkpt>
      <trkpt lat="42.42676" lon="0.11511">
        <ele>549.4</ele>
        <time>2017-07-02T12:26:02Z</time>
      </trkpt>
      <trkpt lat="42.42672" lon="0.11516">
        <ele>549.2</ele>
        <time>2017-07-02T12:26:03Z</time>
      </trkpt>
      <trkpt lat="42.42668" lon="0.11521">
        <ele>548.9</ele>
        <time>2017-07-02T12:26:04Z</time>
      </trkpt>
      <trkpt lat="42.42664" lon="0.11526">
        <ele>548.8</ele>
        <time>2017-07-02T12:26:05Z</time>
      </trkpt>
      <trkpt lat="42.4266" lon="0.1153">
        <ele>548.8</ele>
        <time>2017-07-02T12:26:06Z</time>
      </trkpt>
      <trkpt lat="42.42656" lon="0.11535">
        <ele>548.7</ele>
        <time>2017-07-02T12:26:07Z</time>
      </trkpt>
      <trkpt lat="42.42651" lon="0.1154">
        <ele>548.7</ele>
        <time>2017-07-02T12:26:08Z</time>
      </trkpt>
      <trkpt lat="42.42647" lon="0.11544">
        <ele>548.6</ele>
        <time>2017-07-02T12:26:09Z</time>
      </trkpt>
      <trkpt lat="42.42643" lon="0.11548">
        <ele>548.6</ele>
        <time>2017-07-02T12:26:10Z</time>
      </trkpt>
      <trkpt lat="42.42638" lon="0.11553">
        <ele>548.5</ele>
        <time>2017-07-02T12:26:11Z</time>
      </trkpt>
      <trkpt lat="42.42634" lon="0.11558">
        <ele>548.5</ele>
        <time>2017-07-02T12:26:12Z</time>
      </trkpt>
      <trkpt lat="42.4263" lon="0.11564">
        <ele>548.5</ele>
        <time>2017-07-02T12:26:13Z</time>
      </trkpt>
      <trkpt lat="42.42627" lon="0.11569">
        <ele>548.4</ele>
        <time>2017-07-02T12:26:14Z</time>
      </trkpt>
      <trkpt lat="42.42622" lon="0.11573">
        <ele>548.4</ele>
        <time>2017-07-02T12:26:15Z</time>
      </trkpt>
      <trkpt lat="42.42618" lon="0.11578">
        <ele>548.4</ele>
        <time>2017-07-02T12:26:16Z</time>
      </trkpt>
      <trkpt lat="42.42614" lon="0.11582">
        <ele>548.4</ele>
        <time>2017-07-02T12:26:17Z</time>
      </trkpt>
      <trkpt lat="42.4261" lon="0.11586">
        <ele>548.4</ele>
        <time>2017-07-02T12:26:18Z</time>
      </trkpt>
      <trkpt lat="42.42606" lon="0.11591">
        <ele>548.4</ele>
        <time>2017-07-02T12:26:19Z</time>
      </trkpt>
      <trkpt lat="42.42602" lon="0.11595">
        <ele>548.4</ele>
        <time>2017-07-02T12:26:20Z</time>
      </trkpt>
      <trkpt lat="42.42598" lon="0.11599">
        <ele>548.4</ele>
        <time>2017-07-02T12:26:21Z</time>
      </trkpt>
      <trkpt lat="42.42594" lon="0.11603">
        <ele>548.4</ele>
        <time>2017-07-02T12:26:22Z</time>
      </trkpt>
      <trkpt lat="42.4259" lon="0.11608">
        <ele>548.4</ele>
        <time>2017-07-02T12:26:23Z</time>
      </trkpt>
      <trkpt lat="42.42586" lon="0.11612">
        <ele>548.4</ele>
        <time>2017-07-02T12:26:24Z</time>
      </trkpt>
      <trkpt lat="42.42582" lon="0.11617">
        <ele>548.4</ele>
        <time>2017-07-02T12:26:25Z</time>
      </trkpt>
      <trkpt lat="42.42578" lon="0.11621">
        <ele>548.4</ele>
        <time>2017-07-02T12:26:26Z</time>
      </trkpt>
      <trkpt lat="42.42574" lon="0.11626">
        <ele>548.4</ele>
        <time>2017-07-02T12:26:27Z</time>
      </trkpt>
      <trkpt lat="42.4257" lon="0.11631">
        <ele>548.4</ele>
        <time>2017-07-02T12:26:28Z</time>
      </trkpt>
      <trkpt lat="42.42566" lon="0.11636">
        <ele>548.4</ele>
        <time>2017-07-02T12:26:29Z</time>
      </trkpt>
      <trkpt lat="42.42562" lon="0.11641">
        <ele>548.4</ele>
        <time>2017-07-02T12:26:30Z</time>
      </trkpt>
      <trkpt lat="42.42558" lon="0.11646">
        <ele>548.4</ele>
        <time>2017-07-02T12:26:31Z</time>
      </trkpt>
      <trkpt lat="42.42554" lon="0.11651">
        <ele>548.4</ele>
        <time>2017-07-02T12:26:32Z</time>
      </trkpt>
      <trkpt lat="42.4255" lon="0.11656">
        <ele>548.4</ele>
        <time>2017-07-02T12:26:33Z</time>
      </trkpt>
      <trkpt lat="42.42546" lon="0.11661">
        <ele>548.3</ele>
        <time>2017-07-02T12:26:34Z</time>
      </trkpt>
      <trkpt lat="42.42541" lon="0.11666">
        <ele>548.2</ele>
        <time>2017-07-02T12:26:35Z</time>
      </trkpt>
      <trkpt lat="42.42537" lon="0.11671">
        <ele>548.2</ele>
        <time>2017-07-02T12:26:36Z</time>
      </trkpt>
      <trkpt lat="42.42532" lon="0.11676">
        <ele>548.1</ele>
        <time>2017-07-02T12:26:37Z</time>
      </trkpt>
      <trkpt lat="42.42527" lon="0.11681">
        <ele>547.8</ele>
        <time>2017-07-02T12:26:38Z</time>
      </trkpt>
      <trkpt lat="42.42522" lon="0.11686">
        <ele>547.5</ele>
        <time>2017-07-02T12:26:39Z</time>
      </trkpt>
      <trkpt lat="42.42518" lon="0.11691">
        <ele>547.1</ele>
        <time>2017-07-02T12:26:40Z</time>
      </trkpt>
      <trkpt lat="42.42513" lon="0.11697">
        <ele>546.9</ele>
        <time>2017-07-02T12:26:41Z</time>
      </trkpt>
      <trkpt lat="42.42509" lon="0.11702">
        <ele>546.8</ele>
        <time>2017-07-02T12:26:42Z</time>
      </trkpt>
      <trkpt lat="42.42504" lon="0.11706">
        <ele>546.7</ele>
        <time>2017-07-02T12:26:43Z</time>
      </trkpt>
      <trkpt lat="42.42498" lon="0.11711">
        <ele>546.6</ele>
        <time>2017-07-02T12:26:44Z</time>
      </trkpt>
      <trkpt lat="42.42494" lon="0.11715">
        <ele>546.5</ele>
        <time>2017-07-02T12:26:45Z</time>
      </trkpt>
      <trkpt lat="42.42489" lon="0.1172">
        <ele>546.3</ele>
        <time>2017-07-02T12:26:46Z</time>
      </trkpt>
      <trkpt lat="42.42483" lon="0.11724">
        <ele>546.3</ele>
        <time>2017-07-02T12:26:47Z</time>
      </trkpt>
      <trkpt lat="42.42478" lon="0.11728">
        <ele>546.3</ele>
        <time>2017-07-02T12:26:48Z</time>
      </trkpt>
      <trkpt lat="42.42474" lon="0.1173">
        <ele>546.2</ele>
        <time>2017-07-02T12:26:49Z</time>
      </trkpt>
      <trkpt lat="42.4247" lon="0.11736">
        <ele>546.2</ele>
        <time>2017-07-02T12:26:50Z</time>
      </trkpt>
      <trkpt lat="42.42465" lon="0.11739">
        <ele>546.2</ele>
        <time>2017-07-02T12:26:51Z</time>
      </trkpt>
      <trkpt lat="42.4246" lon="0.11743">
        <ele>546.2</ele>
        <time>2017-07-02T12:26:52Z</time>
      </trkpt>
      <trkpt lat="42.42454" lon="0.11748">
        <ele>546.2</ele>
        <time>2017-07-02T12:26:53Z</time>
      </trkpt>
      <trkpt lat="42.42449" lon="0.11753">
        <ele>546.2</ele>
        <time>2017-07-02T12:26:54Z</time>
      </trkpt>
      <trkpt lat="42.42444" lon="0.11758">
        <ele>546.2</ele>
        <time>2017-07-02T12:26:55Z</time>
      </trkpt>
      <trkpt lat="42.42439" lon="0.11762">
        <ele>546.2</ele>
        <time>2017-07-02T12:26:56Z</time>
      </trkpt>
      <trkpt lat="42.42433" lon="0.11766">
        <ele>546.2</ele>
        <time>2017-07-02T12:26:57Z</time>
      </trkpt>
      <trkpt lat="42.42428" lon="0.1177">
        <ele>546.2</ele>
        <time>2017-07-02T12:26:58Z</time>
      </trkpt>
      <trkpt lat="42.42422" lon="0.11775">
        <ele>546.2</ele>
        <time>2017-07-02T12:26:59Z</time>
      </trkpt>
      <trkpt lat="42.42417" lon="0.11779">
        <ele>546.2</ele>
        <time>2017-07-02T12:27:00Z</time>
      </trkpt>
      <trkpt lat="42.42412" lon="0.11784">
        <ele>546.2</ele>
        <time>2017-07-02T12:27:01Z</time>
      </trkpt>
      <trkpt lat="42.42406" lon="0.11789">
        <ele>546.2</ele>
        <time>2017-07-02T12:27:02Z</time>
      </trkpt>
      <trkpt lat="42.42401" lon="0.11794">
        <ele>546.2</ele>
        <time>2017-07-02T12:27:03Z</time>
      </trkpt>
      <trkpt lat="42.42395" lon="0.11797">
        <ele>546.2</ele>
        <time>2017-07-02T12:27:04Z</time>
      </trkpt>
      <trkpt lat="42.42389" lon="0.11802">
        <ele>546.2</ele>
        <time>2017-07-02T12:27:05Z</time>
      </trkpt>
      <trkpt lat="42.42384" lon="0.11807">
        <ele>546.2</ele>
        <time>2017-07-02T12:27:06Z</time>
      </trkpt>
      <trkpt lat="42.42379" lon="0.11811">
        <ele>546.2</ele>
        <time>2017-07-02T12:27:07Z</time>
      </trkpt>
      <trkpt lat="42.42376" lon="0.11815">
        <ele>546.2</ele>
        <time>2017-07-02T12:27:08Z</time>
      </trkpt>
      <trkpt lat="42.42371" lon="0.11821">
        <ele>546.2</ele>
        <time>2017-07-02T12:27:09Z</time>
      </trkpt>
      <trkpt lat="42.42365" lon="0.11826">
        <ele>546.2</ele>
        <time>2017-07-02T12:27:10Z</time>
      </trkpt>
      <trkpt lat="42.42361" lon="0.11832">
        <ele>546.2</ele>
        <time>2017-07-02T12:27:11Z</time>
      </trkpt>
      <trkpt lat="42.42357" lon="0.11837">
        <ele>546.2</ele>
        <time>2017-07-02T12:27:12Z</time>
      </trkpt>
      <trkpt lat="42.42354" lon="0.11843">
        <ele>546.2</ele>
        <time>2017-07-02T12:27:13Z</time>
      </trkpt>
      <trkpt lat="42.42349" lon="0.11848">
        <ele>546.2</ele>
        <time>2017-07-02T12:27:14Z</time>
      </trkpt>
      <trkpt lat="42.42345" lon="0.11853">
        <ele>546.2</ele>
        <time>2017-07-02T12:27:15Z</time>
      </trkpt>
      <trkpt lat="42.4234" lon="0.11859">
        <ele>546.2</ele>
        <time>2017-07-02T12:27:16Z</time>
      </trkpt>
      <trkpt lat="42.42337" lon="0.11866">
        <ele>546.2</ele>
        <time>2017-07-02T12:27:17Z</time>
      </trkpt>
      <trkpt lat="42.42333" lon="0.11872">
        <ele>546.2</ele>
        <time>2017-07-02T12:27:18Z</time>
      </trkpt>
      <trkpt lat="42.42329" lon="0.11877">
        <ele>546.1</ele>
        <time>2017-07-02T12:27:19Z</time>
      </trkpt>
      <trkpt lat="42.42325" lon="0.11884">
        <ele>546.1</ele>
        <time>2017-07-02T12:27:20Z</time>
      </trkpt>
      <trkpt lat="42.42321" lon="0.11889">
        <ele>546.1</ele>
        <time>2017-07-02T12:27:21Z</time>
      </trkpt>
      <trkpt lat="42.42318" lon="0.11895">
        <ele>546.1</ele>
        <time>2017-07-02T12:27:22Z</time>
      </trkpt>
      <trkpt lat="42.42314" lon="0.11901">
        <ele>546.1</ele>
        <time>2017-07-02T12:27:23Z</time>
      </trkpt>
      <trkpt lat="42.42311" lon="0.11907">
        <ele>546</ele>
        <time>2017-07-02T12:27:24Z</time>
      </trkpt>
      <trkpt lat="42.42307" lon="0.11913">
        <ele>546</ele>
        <time>2017-07-02T12:27:25Z</time>
      </trkpt>
      <trkpt lat="42.42303" lon="0.1192">
        <ele>546</ele>
        <time>2017-07-02T12:27:26Z</time>
      </trkpt>
      <trkpt lat="42.423" lon="0.11926">
        <ele>545.9</ele>
        <time>2017-07-02T12:27:27Z</time>
      </trkpt>
      <trkpt lat="42.42296" lon="0.11932">
        <ele>545.8</ele>
        <time>2017-07-02T12:27:28Z</time>
      </trkpt>
      <trkpt lat="42.42292" lon="0.11938">
        <ele>545.8</ele>
        <time>2017-07-02T12:27:29Z</time>
      </trkpt>
      <trkpt lat="42.42289" lon="0.11944">
        <ele>545.5</ele>
        <time>2017-07-02T12:27:30Z</time>
      </trkpt>
      <trkpt lat="42.42285" lon="0.11951">
        <ele>545.2</ele>
        <time>2017-07-02T12:27:31Z</time>
      </trkpt>
      <trkpt lat="42.42282" lon="0.11957">
        <ele>545</ele>
        <time>2017-07-02T12:27:32Z</time>
      </trkpt>
      <trkpt lat="42.42278" lon="0.11964">
        <ele>544.8</ele>
        <time>2017-07-02T12:27:33Z</time>
      </trkpt>
      <trkpt lat="42.42275" lon="0.1197">
        <ele>544.7</ele>
        <time>2017-07-02T12:27:34Z</time>
      </trkpt>
      <trkpt lat="42.42271" lon="0.11977">
        <ele>544.6</ele>
        <time>2017-07-02T12:27:35Z</time>
      </trkpt>
      <trkpt lat="42.42267" lon="0.11983">
        <ele>544.5</ele>
        <time>2017-07-02T12:27:36Z</time>
      </trkpt>
      <trkpt lat="42.42264" lon="0.1199">
        <ele>544.4</ele>
        <time>2017-07-02T12:27:37Z</time>
      </trkpt>
      <trkpt lat="42.4226" lon="0.11997">
        <ele>544.3</ele>
        <time>2017-07-02T12:27:38Z</time>
      </trkpt>
      <trkpt lat="42.42256" lon="0.12004">
        <ele>544.3</ele>
        <time>2017-07-02T12:27:39Z</time>
      </trkpt>
      <trkpt lat="42.42253" lon="0.1201">
        <ele>544.2</ele>
        <time>2017-07-02T12:27:40Z</time>
      </trkpt>
      <trkpt lat="42.42249" lon="0.12017">
        <ele>544.2</ele>
        <time>2017-07-02T12:27:41Z</time>
      </trkpt>
      <trkpt lat="42.42245" lon="0.12024">
        <ele>544.1</ele>
        <time>2017-07-02T12:27:42Z</time>
      </trkpt>
      <trkpt lat="42.42241" lon="0.1203">
        <ele>544.1</ele>
        <time>2017-07-02T12:27:43Z</time>
      </trkpt>
      <trkpt lat="42.42237" lon="0.12037">
        <ele>544.1</ele>
        <time>2017-07-02T12:27:44Z</time>
      </trkpt>
      <trkpt lat="42.42233" lon="0.12043">
        <ele>544</ele>
        <time>2017-07-02T12:27:45Z</time>
      </trkpt>
      <trkpt lat="42.42229" lon="0.1205">
        <ele>544</ele>
        <time>2017-07-02T12:27:46Z</time>
      </trkpt>
      <trkpt lat="42.42226" lon="0.12056">
        <ele>543.9</ele>
        <time>2017-07-02T12:27:47Z</time>
      </trkpt>
      <trkpt lat="42.42222" lon="0.12063">
        <ele>543.8</ele>
        <time>2017-07-02T12:27:48Z</time>
      </trkpt>
      <trkpt lat="42.42219" lon="0.12069">
        <ele>543.7</ele>
        <time>2017-07-02T12:27:49Z</time>
      </trkpt>
      <trkpt lat="42.42215" lon="0.12076">
        <ele>543.6</ele>
        <time>2017-07-02T12:27:50Z</time>
      </trkpt>
      <trkpt lat="42.42211" lon="0.12083">
        <ele>543.4</ele>
        <time>2017-07-02T12:27:51Z</time>
      </trkpt>
      <trkpt lat="42.42207" lon="0.12088">
        <ele>543.1</ele>
        <time>2017-07-02T12:27:52Z</time>
      </trkpt>
      <trkpt lat="42.42203" lon="0.12094">
        <ele>542.8</ele>
        <time>2017-07-02T12:27:53Z</time>
      </trkpt>
      <trkpt lat="42.422" lon="0.121">
        <ele>542.6</ele>
        <time>2017-07-02T12:27:54Z</time>
      </trkpt>
      <trkpt lat="42.42196" lon="0.12107">
        <ele>542.5</ele>
        <time>2017-07-02T12:27:55Z</time>
      </trkpt>
      <trkpt lat="42.42192" lon="0.12113">
        <ele>542.4</ele>
        <time>2017-07-02T12:27:56Z</time>
      </trkpt>
      <trkpt lat="42.42188" lon="0.12119">
        <ele>542.3</ele>
        <time>2017-07-02T12:27:57Z</time>
      </trkpt>
      <trkpt lat="42.42185" lon="0.12126">
        <ele>542.2</ele>
        <time>2017-07-02T12:27:58Z</time>
      </trkpt>
      <trkpt lat="42.42181" lon="0.12132">
        <ele>542.1</ele>
        <time>2017-07-02T12:27:59Z</time>
      </trkpt>
      <trkpt lat="42.42177" lon="0.12139">
        <ele>542.1</ele>
        <time>2017-07-02T12:28:00Z</time>
      </trkpt>
      <trkpt lat="42.42174" lon="0.12145">
        <ele>542.1</ele>
        <time>2017-07-02T12:28:01Z</time>
      </trkpt>
      <trkpt lat="42.4217" lon="0.12152">
        <ele>542.1</ele>
        <time>2017-07-02T12:28:02Z</time>
      </trkpt>
      <trkpt lat="42.42166" lon="0.12158">
        <ele>542</ele>
        <time>2017-07-02T12:28:03Z</time>
      </trkpt>
      <trkpt lat="42.42162" lon="0.12164">
        <ele>542</ele>
        <time>2017-07-02T12:28:04Z</time>
      </trkpt>
      <trkpt lat="42.42158" lon="0.1217">
        <ele>542</ele>
        <time>2017-07-02T12:28:05Z</time>
      </trkpt>
      <trkpt lat="42.42155" lon="0.12176">
        <ele>542</ele>
        <time>2017-07-02T12:28:06Z</time>
      </trkpt>
      <trkpt lat="42.42151" lon="0.12182">
        <ele>542</ele>
        <time>2017-07-02T12:28:07Z</time>
      </trkpt>
      <trkpt lat="42.42147" lon="0.12188">
        <ele>542</ele>
        <time>2017-07-02T12:28:08Z</time>
      </trkpt>
      <trkpt lat="42.42144" lon="0.12196">
        <ele>542</ele>
        <time>2017-07-02T12:28:09Z</time>
      </trkpt>
      <trkpt lat="42.4214" lon="0.12202">
        <ele>542</ele>
        <time>2017-07-02T12:28:10Z</time>
      </trkpt>
      <trkpt lat="42.42136" lon="0.12209">
        <ele>542</ele>
        <time>2017-07-02T12:28:11Z</time>
      </trkpt>
      <trkpt lat="42.42132" lon="0.12215">
        <ele>542</ele>
        <time>2017-07-02T12:28:12Z</time>
      </trkpt>
      <trkpt lat="42.42128" lon="0.12221">
        <ele>541.9</ele>
        <time>2017-07-02T12:28:13Z</time>
      </trkpt>
      <trkpt lat="42.42124" lon="0.12228">
        <ele>541.9</ele>
        <time>2017-07-02T12:28:14Z</time>
      </trkpt>
      <trkpt lat="42.4212" lon="0.12235">
        <ele>541.9</ele>
        <time>2017-07-02T12:28:15Z</time>
      </trkpt>
      <trkpt lat="42.42116" lon="0.12241">
        <ele>541.9</ele>
        <time>2017-07-02T12:28:16Z</time>
      </trkpt>
      <trkpt lat="42.42113" lon="0.12247">
        <ele>541.9</ele>
        <time>2017-07-02T12:28:17Z</time>
      </trkpt>
      <trkpt lat="42.4211" lon="0.12254">
        <ele>541.8</ele>
        <time>2017-07-02T12:28:18Z</time>
      </trkpt>
      <trkpt lat="42.42107" lon="0.12261">
        <ele>541.8</ele>
        <time>2017-07-02T12:28:19Z</time>
      </trkpt>
      <trkpt lat="42.42103" lon="0.12267">
        <ele>541.8</ele>
        <time>2017-07-02T12:28:20Z</time>
      </trkpt>
      <trkpt lat="42.42099" lon="0.12274">
        <ele>541.7</ele>
        <time>2017-07-02T12:28:21Z</time>
      </trkpt>
      <trkpt lat="42.42096" lon="0.1228">
        <ele>541.6</ele>
        <time>2017-07-02T12:28:22Z</time>
      </trkpt>
      <trkpt lat="42.42093" lon="0.12287">
        <ele>541.2</ele>
        <time>2017-07-02T12:28:23Z</time>
      </trkpt>
      <trkpt lat="42.42089" lon="0.12293">
        <ele>540.9</ele>
        <time>2017-07-02T12:28:24Z</time>
      </trkpt>
      <trkpt lat="42.42086" lon="0.12299">
        <ele>540.6</ele>
        <time>2017-07-02T12:28:25Z</time>
      </trkpt>
      <trkpt lat="42.42083" lon="0.12306">
        <ele>540.5</ele>
        <time>2017-07-02T12:28:26Z</time>
      </trkpt>
      <trkpt lat="42.4208" lon="0.12313">
        <ele>540.4</ele>
        <time>2017-07-02T12:28:27Z</time>
      </trkpt>
      <trkpt lat="42.42077" lon="0.12319">
        <ele>540.3</ele>
        <time>2017-07-02T12:28:28Z</time>
      </trkpt>
      <trkpt lat="42.42073" lon="0.12324">
        <ele>540.2</ele>
        <time>2017-07-02T12:28:29Z</time>
      </trkpt>
      <trkpt lat="42.42069" lon="0.1233">
        <ele>540.1</ele>
        <time>2017-07-02T12:28:30Z</time>
      </trkpt>
      <trkpt lat="42.42065" lon="0.12336">
        <ele>540.1</ele>
        <time>2017-07-02T12:28:31Z</time>
      </trkpt>
      <trkpt lat="42.42062" lon="0.12342">
        <ele>540.1</ele>
        <time>2017-07-02T12:28:32Z</time>
      </trkpt>
      <trkpt lat="42.42058" lon="0.12348">
        <ele>540</ele>
        <time>2017-07-02T12:28:33Z</time>
      </trkpt>
      <trkpt lat="42.42054" lon="0.12354">
        <ele>540</ele>
        <time>2017-07-02T12:28:34Z</time>
      </trkpt>
      <trkpt lat="42.42051" lon="0.12361">
        <ele>540</ele>
        <time>2017-07-02T12:28:35Z</time>
      </trkpt>
      <trkpt lat="42.42048" lon="0.12366">
        <ele>540</ele>
        <time>2017-07-02T12:28:36Z</time>
      </trkpt>
      <trkpt lat="42.42045" lon="0.12372">
        <ele>540</ele>
        <time>2017-07-02T12:28:37Z</time>
      </trkpt>
      <trkpt lat="42.42041" lon="0.12379">
        <ele>540</ele>
        <time>2017-07-02T12:28:38Z</time>
      </trkpt>
      <trkpt lat="42.42038" lon="0.12385">
        <ele>540</ele>
        <time>2017-07-02T12:28:39Z</time>
      </trkpt>
      <trkpt lat="42.42034" lon="0.1239">
        <ele>540</ele>
        <time>2017-07-02T12:28:40Z</time>
      </trkpt>
      <trkpt lat="42.42031" lon="0.12396">
        <ele>540</ele>
        <time>2017-07-02T12:28:41Z</time>
      </trkpt>
      <trkpt lat="42.42027" lon="0.12402">
        <ele>540</ele>
        <time>2017-07-02T12:28:42Z</time>
      </trkpt>
      <trkpt lat="42.42024" lon="0.12408">
        <ele>540</ele>
        <time>2017-07-02T12:28:43Z</time>
      </trkpt>
      <trkpt lat="42.42021" lon="0.12413">
        <ele>540</ele>
        <time>2017-07-02T12:28:44Z</time>
      </trkpt>
      <trkpt lat="42.42016" lon="0.12419">
        <ele>540</ele>
        <time>2017-07-02T12:28:45Z</time>
      </trkpt>
      <trkpt lat="42.42013" lon="0.12426">
        <ele>540</ele>
        <time>2017-07-02T12:28:46Z</time>
      </trkpt>
      <trkpt lat="42.42009" lon="0.12432">
        <ele>540</ele>
        <time>2017-07-02T12:28:47Z</time>
      </trkpt>
      <trkpt lat="42.42006" lon="0.12439">
        <ele>540</ele>
        <time>2017-07-02T12:28:48Z</time>
      </trkpt>
      <trkpt lat="42.42002" lon="0.12444">
        <ele>540</ele>
        <time>2017-07-02T12:28:49Z</time>
      </trkpt>
      <trkpt lat="42.41998" lon="0.1245">
        <ele>540</ele>
        <time>2017-07-02T12:28:50Z</time>
      </trkpt>
      <trkpt lat="42.41995" lon="0.12456">
        <ele>540</ele>
        <time>2017-07-02T12:28:51Z</time>
      </trkpt>
      <trkpt lat="42.41991" lon="0.12462">
        <ele>540</ele>
        <time>2017-07-02T12:28:52Z</time>
      </trkpt>
      <trkpt lat="42.41987" lon="0.12468">
        <ele>540</ele>
        <time>2017-07-02T12:28:53Z</time>
      </trkpt>
      <trkpt lat="42.41984" lon="0.12473">
        <ele>540</ele>
        <time>2017-07-02T12:28:54Z</time>
      </trkpt>
      <trkpt lat="42.41981" lon="0.12479">
        <ele>540</ele>
        <time>2017-07-02T12:28:55Z</time>
      </trkpt>
      <trkpt lat="42.41977" lon="0.12484">
        <ele>539.9</ele>
        <time>2017-07-02T12:28:56Z</time>
      </trkpt>
      <trkpt lat="42.41973" lon="0.12491">
        <ele>539.9</ele>
        <time>2017-07-02T12:28:57Z</time>
      </trkpt>
      <trkpt lat="42.4197" lon="0.12497">
        <ele>539.9</ele>
        <time>2017-07-02T12:28:58Z</time>
      </trkpt>
      <trkpt lat="42.41966" lon="0.12503">
        <ele>539.9</ele>
        <time>2017-07-02T12:28:59Z</time>
      </trkpt>
      <trkpt lat="42.41962" lon="0.12509">
        <ele>539.8</ele>
        <time>2017-07-02T12:29:00Z</time>
      </trkpt>
      <trkpt lat="42.41959" lon="0.12515">
        <ele>539.8</ele>
        <time>2017-07-02T12:29:01Z</time>
      </trkpt>
      <trkpt lat="42.41956" lon="0.12521">
        <ele>539.8</ele>
        <time>2017-07-02T12:29:02Z</time>
      </trkpt>
      <trkpt lat="42.41953" lon="0.12527">
        <ele>539.6</ele>
        <time>2017-07-02T12:29:03Z</time>
      </trkpt>
      <trkpt lat="42.41949" lon="0.12533">
        <ele>539.4</ele>
        <time>2017-07-02T12:29:04Z</time>
      </trkpt>
      <trkpt lat="42.41946" lon="0.1254">
        <ele>539</ele>
        <time>2017-07-02T12:29:05Z</time>
      </trkpt>
      <trkpt lat="42.41941" lon="0.12546">
        <ele>538.7</ele>
        <time>2017-07-02T12:29:06Z</time>
      </trkpt>
      <trkpt lat="42.41938" lon="0.12552">
        <ele>538.5</ele>
        <time>2017-07-02T12:29:07Z</time>
      </trkpt>
      <trkpt lat="42.41936" lon="0.12559">
        <ele>538.4</ele>
        <time>2017-07-02T12:29:08Z</time>
      </trkpt>
      <trkpt lat="42.41932" lon="0.12565">
        <ele>538.2</ele>
        <time>2017-07-02T12:29:09Z</time>
      </trkpt>
      <trkpt lat="42.41928" lon="0.12571">
        <ele>538.1</ele>
        <time>2017-07-02T12:29:10Z</time>
      </trkpt>
      <trkpt lat="42.41924" lon="0.12578">
        <ele>538.1</ele>
        <time>2017-07-02T12:29:11Z</time>
      </trkpt>
      <trkpt lat="42.41921" lon="0.12584">
        <ele>538</ele>
        <time>2017-07-02T12:29:12Z</time>
      </trkpt>
      <trkpt lat="42.41917" lon="0.12589">
        <ele>538</ele>
        <time>2017-07-02T12:29:13Z</time>
      </trkpt>
      <trkpt lat="42.41913" lon="0.12593">
        <ele>537.9</ele>
        <time>2017-07-02T12:29:14Z</time>
      </trkpt>
      <trkpt lat="42.41908" lon="0.12594">
        <ele>537.9</ele>
        <time>2017-07-02T12:29:15Z</time>
      </trkpt>
      <trkpt lat="42.41903" lon="0.12594">
        <ele>537.8</ele>
        <time>2017-07-02T12:29:16Z</time>
      </trkpt>
      <trkpt lat="42.41897" lon="0.12594">
        <ele>537.7</ele>
        <time>2017-07-02T12:29:17Z</time>
      </trkpt>
      <trkpt lat="42.41891" lon="0.12596">
        <ele>537.6</ele>
        <time>2017-07-02T12:29:18Z</time>
      </trkpt>
      <trkpt lat="42.41886" lon="0.12598">
        <ele>537.5</ele>
        <time>2017-07-02T12:29:19Z</time>
      </trkpt>
      <trkpt lat="42.41882" lon="0.12601">
        <ele>537.3</ele>
        <time>2017-07-02T12:29:20Z</time>
      </trkpt>
      <trkpt lat="42.41878" lon="0.12605">
        <ele>537</ele>
        <time>2017-07-02T12:29:21Z</time>
      </trkpt>
      <trkpt lat="42.41874" lon="0.1261">
        <ele>536.7</ele>
        <time>2017-07-02T12:29:22Z</time>
      </trkpt>
      <trkpt lat="42.4187" lon="0.12613">
        <ele>536.4</ele>
        <time>2017-07-02T12:29:23Z</time>
      </trkpt>
      <trkpt lat="42.41865" lon="0.12616">
        <ele>536.1</ele>
        <time>2017-07-02T12:29:24Z</time>
      </trkpt>
      <trkpt lat="42.41859" lon="0.12621">
        <ele>536.1</ele>
        <time>2017-07-02T12:29:25Z</time>
      </trkpt>
      <trkpt lat="42.41854" lon="0.12624">
        <ele>536</ele>
        <time>2017-07-02T12:29:26Z</time>
      </trkpt>
      <trkpt lat="42.4185" lon="0.12627">
        <ele>535.9</ele>
        <time>2017-07-02T12:29:27Z</time>
      </trkpt>
      <trkpt lat="42.41845" lon="0.12629">
        <ele>535.9</ele>
        <time>2017-07-02T12:29:28Z</time>
      </trkpt>
      <trkpt lat="42.41841" lon="0.12634">
        <ele>535.9</ele>
        <time>2017-07-02T12:29:29Z</time>
      </trkpt>
      <trkpt lat="42.41837" lon="0.1264">
        <ele>535.8</ele>
        <time>2017-07-02T12:29:30Z</time>
      </trkpt>
      <trkpt lat="42.41834" lon="0.12646">
        <ele>535.8</ele>
        <time>2017-07-02T12:29:31Z</time>
      </trkpt>
      <trkpt lat="42.4183" lon="0.12652">
        <ele>535.8</ele>
        <time>2017-07-02T12:29:32Z</time>
      </trkpt>
      <trkpt lat="42.41827" lon="0.12659">
        <ele>535.8</ele>
        <time>2017-07-02T12:29:33Z</time>
      </trkpt>
      <trkpt lat="42.41824" lon="0.12666">
        <ele>535.7</ele>
        <time>2017-07-02T12:29:34Z</time>
      </trkpt>
      <trkpt lat="42.4182" lon="0.12673">
        <ele>535.7</ele>
        <time>2017-07-02T12:29:35Z</time>
      </trkpt>
      <trkpt lat="42.41818" lon="0.12679">
        <ele>535.7</ele>
        <time>2017-07-02T12:29:36Z</time>
      </trkpt>
      <trkpt lat="42.41814" lon="0.12687">
        <ele>535.7</ele>
        <time>2017-07-02T12:29:37Z</time>
      </trkpt>
      <trkpt lat="42.41811" lon="0.12694">
        <ele>535.7</ele>
        <time>2017-07-02T12:29:38Z</time>
      </trkpt>
      <trkpt lat="42.41808" lon="0.12701">
        <ele>535.7</ele>
        <time>2017-07-02T12:29:39Z</time>
      </trkpt>
      <trkpt lat="42.41803" lon="0.12707">
        <ele>535.7</ele>
        <time>2017-07-02T12:29:40Z</time>
      </trkpt>
      <trkpt lat="42.41798" lon="0.12713">
        <ele>535.7</ele>
        <time>2017-07-02T12:29:41Z</time>
      </trkpt>
      <trkpt lat="42.41793" lon="0.12719">
        <ele>535.7</ele>
        <time>2017-07-02T12:29:42Z</time>
      </trkpt>
      <trkpt lat="42.41787" lon="0.12724">
        <ele>535.7</ele>
        <time>2017-07-02T12:29:43Z</time>
      </trkpt>
      <trkpt lat="42.41782" lon="0.12729">
        <ele>535.7</ele>
        <time>2017-07-02T12:29:44Z</time>
      </trkpt>
      <trkpt lat="42.41778" lon="0.12734">
        <ele>535.7</ele>
        <time>2017-07-02T12:29:45Z</time>
      </trkpt>
      <trkpt lat="42.41773" lon="0.12739">
        <ele>535.7</ele>
        <time>2017-07-02T12:29:46Z</time>
      </trkpt>
      <trkpt lat="42.41768" lon="0.12743">
        <ele>535.7</ele>
        <time>2017-07-02T12:29:47Z</time>
      </trkpt>
      <trkpt lat="42.41764" lon="0.12749">
        <ele>535.7</ele>
        <time>2017-07-02T12:29:48Z</time>
      </trkpt>
      <trkpt lat="42.41759" lon="0.12754">
        <ele>535.8</ele>
        <time>2017-07-02T12:29:49Z</time>
      </trkpt>
      <trkpt lat="42.41755" lon="0.1276">
        <ele>535.8</ele>
        <time>2017-07-02T12:29:50Z</time>
      </trkpt>
      <trkpt lat="42.4175" lon="0.12766">
        <ele>535.8</ele>
        <time>2017-07-02T12:29:51Z</time>
      </trkpt>
      <trkpt lat="42.41746" lon="0.12772">
        <ele>535.8</ele>
        <time>2017-07-02T12:29:52Z</time>
      </trkpt>
      <trkpt lat="42.41742" lon="0.12777">
        <ele>535.8</ele>
        <time>2017-07-02T12:29:53Z</time>
      </trkpt>
      <trkpt lat="42.41738" lon="0.12783">
        <ele>535.8</ele>
        <time>2017-07-02T12:29:54Z</time>
      </trkpt>
      <trkpt lat="42.41734" lon="0.12788">
        <ele>535.8</ele>
        <time>2017-07-02T12:29:55Z</time>
      </trkpt>
      <trkpt lat="42.41732" lon="0.12794">
        <ele>535.8</ele>
        <time>2017-07-02T12:29:56Z</time>
      </trkpt>
      <trkpt lat="42.4173" lon="0.12801">
        <ele>535.8</ele>
        <time>2017-07-02T12:29:57Z</time>
      </trkpt>
      <trkpt lat="42.41727" lon="0.12807">
        <ele>535.8</ele>
        <time>2017-07-02T12:29:58Z</time>
      </trkpt>
      <trkpt lat="42.41725" lon="0.12814">
        <ele>535.8</ele>
        <time>2017-07-02T12:29:59Z</time>
      </trkpt>
      <trkpt lat="42.41723" lon="0.12821">
        <ele>535.8</ele>
        <time>2017-07-02T12:30:00Z</time>
      </trkpt>
      <trkpt lat="42.41722" lon="0.12829">
        <ele>535.8</ele>
        <time>2017-07-02T12:30:01Z</time>
      </trkpt>
      <trkpt lat="42.4172" lon="0.12836">
        <ele>535.8</ele>
        <time>2017-07-02T12:30:02Z</time>
      </trkpt>
      <trkpt lat="42.41716" lon="0.12843">
        <ele>535.8</ele>
        <time>2017-07-02T12:30:03Z</time>
      </trkpt>
      <trkpt lat="42.41712" lon="0.12849">
        <ele>535.8</ele>
        <time>2017-07-02T12:30:04Z</time>
      </trkpt>
      <trkpt lat="42.4171" lon="0.12856">
        <ele>535.8</ele>
        <time>2017-07-02T12:30:05Z</time>
      </trkpt>
      <trkpt lat="42.41706" lon="0.12861">
        <ele>535.8</ele>
        <time>2017-07-02T12:30:06Z</time>
      </trkpt>
      <trkpt lat="42.41702" lon="0.12866">
        <ele>535.8</ele>
        <time>2017-07-02T12:30:07Z</time>
      </trkpt>
      <trkpt lat="42.41698" lon="0.12871">
        <ele>535.8</ele>
        <time>2017-07-02T12:30:08Z</time>
      </trkpt>
      <trkpt lat="42.41694" lon="0.12876">
        <ele>535.8</ele>
        <time>2017-07-02T12:30:09Z</time>
      </trkpt>
      <trkpt lat="42.41689" lon="0.12878">
        <ele>535.8</ele>
        <time>2017-07-02T12:30:10Z</time>
      </trkpt>
      <trkpt lat="42.41684" lon="0.12879">
        <ele>535.8</ele>
        <time>2017-07-02T12:30:11Z</time>
      </trkpt>
      <trkpt lat="42.41679" lon="0.12879">
        <ele>535.8</ele>
        <time>2017-07-02T12:30:12Z</time>
      </trkpt>
      <trkpt lat="42.41674" lon="0.12875">
        <ele>535.9</ele>
        <time>2017-07-02T12:30:13Z</time>
      </trkpt>
      <trkpt lat="42.41669" lon="0.12872">
        <ele>535.9</ele>
        <time>2017-07-02T12:30:14Z</time>
      </trkpt>
      <trkpt lat="42.41663" lon="0.1287">
        <ele>535.9</ele>
        <time>2017-07-02T12:30:15Z</time>
      </trkpt>
      <trkpt lat="42.41658" lon="0.12868">
        <ele>535.9</ele>
        <time>2017-07-02T12:30:16Z</time>
      </trkpt>
      <trkpt lat="42.41654" lon="0.12866">
        <ele>535.9</ele>
        <time>2017-07-02T12:30:17Z</time>
      </trkpt>
      <trkpt lat="42.41649" lon="0.12864">
        <ele>536</ele>
        <time>2017-07-02T12:30:18Z</time>
      </trkpt>
      <trkpt lat="42.41645" lon="0.12861">
        <ele>536</ele>
        <time>2017-07-02T12:30:19Z</time>
      </trkpt>
      <trkpt lat="42.4164" lon="0.1286">
        <ele>536</ele>
        <time>2017-07-02T12:30:20Z</time>
      </trkpt>
      <trkpt lat="42.41636" lon="0.12858">
        <ele>536</ele>
        <time>2017-07-02T12:30:21Z</time>
      </trkpt>
      <trkpt lat="42.41629" lon="0.12857">
        <ele>536.1</ele>
        <time>2017-07-02T12:30:22Z</time>
      </trkpt>
      <trkpt lat="42.41623" lon="0.12857">
        <ele>536.1</ele>
        <time>2017-07-02T12:30:23Z</time>
      </trkpt>
      <trkpt lat="42.41619" lon="0.12854">
        <ele>536.2</ele>
        <time>2017-07-02T12:30:24Z</time>
      </trkpt>
      <trkpt lat="42.41614" lon="0.12854">
        <ele>536.3</ele>
        <time>2017-07-02T12:30:25Z</time>
      </trkpt>
      <trkpt lat="42.41609" lon="0.12851">
        <ele>536.5</ele>
        <time>2017-07-02T12:30:26Z</time>
      </trkpt>
      <trkpt lat="42.41604" lon="0.1285">
        <ele>536.8</ele>
        <time>2017-07-02T12:30:27Z</time>
      </trkpt>
      <trkpt lat="42.41599" lon="0.12848">
        <ele>537.1</ele>
        <time>2017-07-02T12:30:28Z</time>
      </trkpt>
      <trkpt lat="42.41593" lon="0.12847">
        <ele>537.3</ele>
        <time>2017-07-02T12:30:29Z</time>
      </trkpt>
      <trkpt lat="42.41588" lon="0.12845">
        <ele>537.4</ele>
        <time>2017-07-02T12:30:30Z</time>
      </trkpt>
      <trkpt lat="42.41582" lon="0.12843">
        <ele>537.5</ele>
        <time>2017-07-02T12:30:31Z</time>
      </trkpt>
      <trkpt lat="42.41577" lon="0.12841">
        <ele>537.7</ele>
        <time>2017-07-02T12:30:32Z</time>
      </trkpt>
      <trkpt lat="42.41573" lon="0.12838">
        <ele>537.8</ele>
        <time>2017-07-02T12:30:33Z</time>
      </trkpt>
      <trkpt lat="42.41568" lon="0.12835">
        <ele>537.8</ele>
        <time>2017-07-02T12:30:34Z</time>
      </trkpt>
      <trkpt lat="42.41564" lon="0.12832">
        <ele>537.8</ele>
        <time>2017-07-02T12:30:35Z</time>
      </trkpt>
      <trkpt lat="42.41559" lon="0.12829">
        <ele>537.8</ele>
        <time>2017-07-02T12:30:36Z</time>
      </trkpt>
      <trkpt lat="42.41555" lon="0.12826">
        <ele>537.9</ele>
        <time>2017-07-02T12:30:37Z</time>
      </trkpt>
      <trkpt lat="42.41551" lon="0.12822">
        <ele>537.9</ele>
        <time>2017-07-02T12:30:38Z</time>
      </trkpt>
      <trkpt lat="42.41546" lon="0.12818">
        <ele>537.9</ele>
        <time>2017-07-02T12:30:39Z</time>
      </trkpt>
      <trkpt lat="42.41543" lon="0.12813">
        <ele>537.9</ele>
        <time>2017-07-02T12:30:40Z</time>
      </trkpt>
      <trkpt lat="42.41538" lon="0.1281">
        <ele>538</ele>
        <time>2017-07-02T12:30:41Z</time>
      </trkpt>
      <trkpt lat="42.41534" lon="0.12804">
        <ele>538</ele>
        <time>2017-07-02T12:30:42Z</time>
      </trkpt>
      <trkpt lat="42.41531" lon="0.128">
        <ele>538</ele>
        <time>2017-07-02T12:30:43Z</time>
      </trkpt>
      <trkpt lat="42.41527" lon="0.12795">
        <ele>538</ele>
        <time>2017-07-02T12:30:44Z</time>
      </trkpt>
      <trkpt lat="42.41524" lon="0.12791">
        <ele>538</ele>
        <time>2017-07-02T12:30:45Z</time>
      </trkpt>
      <trkpt lat="42.4152" lon="0.12787">
        <ele>538</ele>
        <time>2017-07-02T12:30:46Z</time>
      </trkpt>
      <trkpt lat="42.41514" lon="0.12785">
        <ele>538.1</ele>
        <time>2017-07-02T12:30:47Z</time>
      </trkpt>
      <trkpt lat="42.41509" lon="0.12785">
        <ele>538.1</ele>
        <time>2017-07-02T12:30:48Z</time>
      </trkpt>
      <trkpt lat="42.41504" lon="0.12787">
        <ele>538.2</ele>
        <time>2017-07-02T12:30:49Z</time>
      </trkpt>
      <trkpt lat="42.41499" lon="0.12788">
        <ele>538.3</ele>
        <time>2017-07-02T12:30:50Z</time>
      </trkpt>
      <trkpt lat="42.41493" lon="0.12788">
        <ele>538.4</ele>
        <time>2017-07-02T12:30:51Z</time>
      </trkpt>
      <trkpt lat="42.41488" lon="0.12787">
        <ele>538.6</ele>
        <time>2017-07-02T12:30:52Z</time>
      </trkpt>
      <trkpt lat="42.41483" lon="0.12787">
        <ele>538.9</ele>
        <time>2017-07-02T12:30:53Z</time>
      </trkpt>
      <trkpt lat="42.41478" lon="0.12786">
        <ele>539.1</ele>
        <time>2017-07-02T12:30:54Z</time>
      </trkpt>
      <trkpt lat="42.41473" lon="0.12785">
        <ele>539.3</ele>
        <time>2017-07-02T12:30:55Z</time>
      </trkpt>
      <trkpt lat="42.41468" lon="0.12783">
        <ele>539.6</ele>
        <time>2017-07-02T12:30:56Z</time>
      </trkpt>
      <trkpt lat="42.41463" lon="0.12783">
        <ele>539.8</ele>
        <time>2017-07-02T12:30:57Z</time>
      </trkpt>
      <trkpt lat="42.41458" lon="0.12781">
        <ele>539.9</ele>
        <time>2017-07-02T12:30:58Z</time>
      </trkpt>
      <trkpt lat="42.41453" lon="0.12778">
        <ele>540.1</ele>
        <time>2017-07-02T12:30:59Z</time>
      </trkpt>
      <trkpt lat="42.41449" lon="0.12775">
        <ele>540.4</ele>
        <time>2017-07-02T12:31:00Z</time>
      </trkpt>
      <trkpt lat="42.41446" lon="0.12771">
        <ele>540.6</ele>
        <time>2017-07-02T12:31:01Z</time>
      </trkpt>
      <trkpt lat="42.41444" lon="0.12766">
        <ele>540.8</ele>
        <time>2017-07-02T12:31:02Z</time>
      </trkpt>
      <trkpt lat="42.41441" lon="0.12762">
        <ele>541</ele>
        <time>2017-07-02T12:31:03Z</time>
      </trkpt>
      <trkpt lat="42.4144" lon="0.12757">
        <ele>541.2</ele>
        <time>2017-07-02T12:31:04Z</time>
      </trkpt>
      <trkpt lat="42.41438" lon="0.12753">
        <ele>541.3</ele>
        <time>2017-07-02T12:31:05Z</time>
      </trkpt>
      <trkpt lat="42.41436" lon="0.12746">
        <ele>541.4</ele>
        <time>2017-07-02T12:31:07Z</time>
      </trkpt>
      <trkpt lat="42.41435" lon="0.12741">
        <ele>541.5</ele>
        <time>2017-07-02T12:31:08Z</time>
      </trkpt>
      <trkpt lat="42.41434" lon="0.12737">
        <ele>541.5</ele>
        <time>2017-07-02T12:31:09Z</time>
      </trkpt>
      <trkpt lat="42.41433" lon="0.12734">
        <ele>541.6</ele>
        <time>2017-07-02T12:31:10Z</time>
      </trkpt>
      <trkpt lat="42.41432" lon="0.1273">
        <ele>541.7</ele>
        <time>2017-07-02T12:31:11Z</time>
      </trkpt>
      <trkpt lat="42.41432" lon="0.12725">
        <ele>541.7</ele>
        <time>2017-07-02T12:31:12Z</time>
      </trkpt>
      <trkpt lat="42.41431" lon="0.12719">
        <ele>541.8</ele>
        <time>2017-07-02T12:31:13Z</time>
      </trkpt>
      <trkpt lat="42.41429" lon="0.12714">
        <ele>541.9</ele>
        <time>2017-07-02T12:31:14Z</time>
      </trkpt>
      <trkpt lat="42.41428" lon="0.12708">
        <ele>541.9</ele>
        <time>2017-07-02T12:31:15Z</time>
      </trkpt>
      <trkpt lat="42.41426" lon="0.12701">
        <ele>541.9</ele>
        <time>2017-07-02T12:31:16Z</time>
      </trkpt>
      <trkpt lat="42.41424" lon="0.12696">
        <ele>541.9</ele>
        <time>2017-07-02T12:31:17Z</time>
      </trkpt>
      <trkpt lat="42.41422" lon="0.12691">
        <ele>542</ele>
        <time>2017-07-02T12:31:18Z</time>
      </trkpt>
      <trkpt lat="42.41422" lon="0.12684">
        <ele>542</ele>
        <time>2017-07-02T12:31:19Z</time>
      </trkpt>
      <trkpt lat="42.41422" lon="0.12676">
        <ele>542</ele>
        <time>2017-07-02T12:31:20Z</time>
      </trkpt>
      <trkpt lat="42.41422" lon="0.1267">
        <ele>541.9</ele>
        <time>2017-07-02T12:31:21Z</time>
      </trkpt>
      <trkpt lat="42.4142" lon="0.12664">
        <ele>541.9</ele>
        <time>2017-07-02T12:31:22Z</time>
      </trkpt>
      <trkpt lat="42.4142" lon="0.12659">
        <ele>541.8</ele>
        <time>2017-07-02T12:31:23Z</time>
      </trkpt>
      <trkpt lat="42.41418" lon="0.12654">
        <ele>541.8</ele>
        <time>2017-07-02T12:31:24Z</time>
      </trkpt>
      <trkpt lat="42.41417" lon="0.12648">
        <ele>541.7</ele>
        <time>2017-07-02T12:31:25Z</time>
      </trkpt>
      <trkpt lat="42.41416" lon="0.12643">
        <ele>541.6</ele>
        <time>2017-07-02T12:31:26Z</time>
      </trkpt>
      <trkpt lat="42.41414" lon="0.12637">
        <ele>541.5</ele>
        <time>2017-07-02T12:31:27Z</time>
      </trkpt>
      <trkpt lat="42.41412" lon="0.12633">
        <ele>541.4</ele>
        <time>2017-07-02T12:31:28Z</time>
      </trkpt>
      <trkpt lat="42.4141" lon="0.12629">
        <ele>541.3</ele>
        <time>2017-07-02T12:31:29Z</time>
      </trkpt>
      <trkpt lat="42.41407" lon="0.12627">
        <ele>541.2</ele>
        <time>2017-07-02T12:31:30Z</time>
      </trkpt>
      <trkpt lat="42.41405" lon="0.12625">
        <ele>541.2</ele>
        <time>2017-07-02T12:31:31Z</time>
      </trkpt>
      <trkpt lat="42.41402" lon="0.12624">
        <ele>541</ele>
        <time>2017-07-02T12:31:32Z</time>
      </trkpt>
      <trkpt lat="42.41399" lon="0.12624">
        <ele>541</ele>
        <time>2017-07-02T12:31:33Z</time>
      </trkpt>
      <trkpt lat="42.41396" lon="0.12625">
        <ele>541</ele>
        <time>2017-07-02T12:31:34Z</time>
      </trkpt>
      <trkpt lat="42.41394" lon="0.12627">
        <ele>541</ele>
        <time>2017-07-02T12:31:35Z</time>
      </trkpt>
      <trkpt lat="42.41391" lon="0.12632">
        <ele>540.9</ele>
        <time>2017-07-02T12:31:36Z</time>
      </trkpt>
      <trkpt lat="42.41389" lon="0.12636">
        <ele>540.7</ele>
        <time>2017-07-02T12:31:37Z</time>
      </trkpt>
      <trkpt lat="42.41386" lon="0.12641">
        <ele>540.7</ele>
        <time>2017-07-02T12:31:38Z</time>
      </trkpt>
      <trkpt lat="42.41384" lon="0.12646">
        <ele>540.6</ele>
        <time>2017-07-02T12:31:39Z</time>
      </trkpt>
      <trkpt lat="42.41381" lon="0.12652">
        <ele>540.6</ele>
        <time>2017-07-02T12:31:40Z</time>
      </trkpt>
      <trkpt lat="42.41378" lon="0.12659">
        <ele>540.8</ele>
        <time>2017-07-02T12:31:41Z</time>
      </trkpt>
      <trkpt lat="42.41375" lon="0.12663">
        <ele>541.1</ele>
        <time>2017-07-02T12:31:42Z</time>
      </trkpt>
      <trkpt lat="42.41372" lon="0.12668">
        <ele>541.5</ele>
        <time>2017-07-02T12:31:43Z</time>
      </trkpt>
      <trkpt lat="42.41369" lon="0.12673">
        <ele>541.9</ele>
        <time>2017-07-02T12:31:44Z</time>
      </trkpt>
      <trkpt lat="42.41366" lon="0.12677">
        <ele>542</ele>
        <time>2017-07-02T12:31:45Z</time>
      </trkpt>
      <trkpt lat="42.41364" lon="0.12682">
        <ele>542</ele>
        <time>2017-07-02T12:31:46Z</time>
      </trkpt>
      <trkpt lat="42.41363" lon="0.12688">
        <ele>542</ele>
        <time>2017-07-02T12:31:47Z</time>
      </trkpt>
      <trkpt lat="42.41364" lon="0.12694">
        <ele>542</ele>
        <time>2017-07-02T12:31:48Z</time>
      </trkpt>
      <trkpt lat="42.41366" lon="0.127">
        <ele>542</ele>
        <time>2017-07-02T12:31:49Z</time>
      </trkpt>
      <trkpt lat="42.41369" lon="0.12707">
        <ele>542</ele>
        <time>2017-07-02T12:31:50Z</time>
      </trkpt>
      <trkpt lat="42.41371" lon="0.12715">
        <ele>542</ele>
        <time>2017-07-02T12:31:51Z</time>
      </trkpt>
      <trkpt lat="42.41374" lon="0.12722">
        <ele>542</ele>
        <time>2017-07-02T12:31:52Z</time>
      </trkpt>
      <trkpt lat="42.41376" lon="0.1273">
        <ele>542</ele>
        <time>2017-07-02T12:31:53Z</time>
      </trkpt>
      <trkpt lat="42.41377" lon="0.1274">
        <ele>542</ele>
        <time>2017-07-02T12:31:54Z</time>
      </trkpt>
      <trkpt lat="42.41379" lon="0.12748">
        <ele>541.8</ele>
        <time>2017-07-02T12:31:55Z</time>
      </trkpt>
      <trkpt lat="42.41381" lon="0.12756">
        <ele>541.5</ele>
        <time>2017-07-02T12:31:56Z</time>
      </trkpt>
      <trkpt lat="42.41383" lon="0.12765">
        <ele>541.3</ele>
        <time>2017-07-02T12:31:57Z</time>
      </trkpt>
      <trkpt lat="42.41383" lon="0.12773">
        <ele>541.2</ele>
        <time>2017-07-02T12:31:58Z</time>
      </trkpt>
      <trkpt lat="42.41384" lon="0.12782">
        <ele>541.2</ele>
        <time>2017-07-02T12:31:59Z</time>
      </trkpt>
      <trkpt lat="42.41384" lon="0.12789">
        <ele>541.2</ele>
        <time>2017-07-02T12:32:00Z</time>
      </trkpt>
      <trkpt lat="42.41386" lon="0.12796">
        <ele>541.2</ele>
        <time>2017-07-02T12:32:01Z</time>
      </trkpt>
      <trkpt lat="42.41388" lon="0.12804">
        <ele>541.1</ele>
        <time>2017-07-02T12:32:02Z</time>
      </trkpt>
      <trkpt lat="42.41389" lon="0.12813">
        <ele>541.1</ele>
        <time>2017-07-02T12:32:03Z</time>
      </trkpt>
      <trkpt lat="42.4139" lon="0.12822">
        <ele>541.1</ele>
        <time>2017-07-02T12:32:04Z</time>
      </trkpt>
      <trkpt lat="42.41392" lon="0.1283">
        <ele>541.1</ele>
        <time>2017-07-02T12:32:05Z</time>
      </trkpt>
      <trkpt lat="42.41394" lon="0.12839">
        <ele>541.1</ele>
        <time>2017-07-02T12:32:06Z</time>
      </trkpt>
      <trkpt lat="42.41395" lon="0.12848">
        <ele>541.1</ele>
        <time>2017-07-02T12:32:07Z</time>
      </trkpt>
      <trkpt lat="42.41397" lon="0.12857">
        <ele>541.1</ele>
        <time>2017-07-02T12:32:08Z</time>
      </trkpt>
      <trkpt lat="42.41398" lon="0.12867">
        <ele>541</ele>
        <time>2017-07-02T12:32:09Z</time>
      </trkpt>
      <trkpt lat="42.414" lon="0.12877">
        <ele>541</ele>
        <time>2017-07-02T12:32:10Z</time>
      </trkpt>
      <trkpt lat="42.41402" lon="0.12884">
        <ele>540.9</ele>
        <time>2017-07-02T12:32:11Z</time>
      </trkpt>
      <trkpt lat="42.41403" lon="0.12894">
        <ele>540.6</ele>
        <time>2017-07-02T12:32:12Z</time>
      </trkpt>
      <trkpt lat="42.41404" lon="0.12903">
        <ele>540.4</ele>
        <time>2017-07-02T12:32:13Z</time>
      </trkpt>
      <trkpt lat="42.41405" lon="0.12912">
        <ele>540.2</ele>
        <time>2017-07-02T12:32:14Z</time>
      </trkpt>
      <trkpt lat="42.41408" lon="0.12921">
        <ele>540.1</ele>
        <time>2017-07-02T12:32:15Z</time>
      </trkpt>
      <trkpt lat="42.41409" lon="0.12929">
        <ele>540</ele>
        <time>2017-07-02T12:32:16Z</time>
      </trkpt>
      <trkpt lat="42.4141" lon="0.12939">
        <ele>540</ele>
        <time>2017-07-02T12:32:17Z</time>
      </trkpt>
      <trkpt lat="42.41412" lon="0.12948">
        <ele>540</ele>
        <time>2017-07-02T12:32:18Z</time>
      </trkpt>
      <trkpt lat="42.41414" lon="0.12957">
        <ele>539.9</ele>
        <time>2017-07-02T12:32:19Z</time>
      </trkpt>
      <trkpt lat="42.41416" lon="0.12966">
        <ele>539.8</ele>
        <time>2017-07-02T12:32:20Z</time>
      </trkpt>
      <trkpt lat="42.41417" lon="0.12975">
        <ele>539.8</ele>
        <time>2017-07-02T12:32:21Z</time>
      </trkpt>
      <trkpt lat="42.41419" lon="0.12983">
        <ele>539.7</ele>
        <time>2017-07-02T12:32:22Z</time>
      </trkpt>
      <trkpt lat="42.41421" lon="0.12992">
        <ele>539.7</ele>
        <time>2017-07-02T12:32:23Z</time>
      </trkpt>
      <trkpt lat="42.41423" lon="0.13001">
        <ele>539.6</ele>
        <time>2017-07-02T12:32:24Z</time>
      </trkpt>
      <trkpt lat="42.41425" lon="0.13009">
        <ele>539.6</ele>
        <time>2017-07-02T12:32:25Z</time>
      </trkpt>
      <trkpt lat="42.41426" lon="0.13018">
        <ele>539.5</ele>
        <time>2017-07-02T12:32:26Z</time>
      </trkpt>
      <trkpt lat="42.41428" lon="0.13028">
        <ele>539.3</ele>
        <time>2017-07-02T12:32:27Z</time>
      </trkpt>
      <trkpt lat="42.41429" lon="0.13036">
        <ele>539.1</ele>
        <time>2017-07-02T12:32:28Z</time>
      </trkpt>
      <trkpt lat="42.4143" lon="0.13046">
        <ele>539</ele>
        <time>2017-07-02T12:32:29Z</time>
      </trkpt>
      <trkpt lat="42.41431" lon="0.13053">
        <ele>539</ele>
        <time>2017-07-02T12:32:30Z</time>
      </trkpt>
      <trkpt lat="42.41433" lon="0.13062">
        <ele>539</ele>
        <time>2017-07-02T12:32:31Z</time>
      </trkpt>
      <trkpt lat="42.41434" lon="0.1307">
        <ele>538.9</ele>
        <time>2017-07-02T12:32:32Z</time>
      </trkpt>
      <trkpt lat="42.41436" lon="0.13077">
        <ele>538.9</ele>
        <time>2017-07-02T12:32:33Z</time>
      </trkpt>
      <trkpt lat="42.41437" lon="0.13086">
        <ele>538.9</ele>
        <time>2017-07-02T12:32:34Z</time>
      </trkpt>
      <trkpt lat="42.41439" lon="0.13094">
        <ele>538.9</ele>
        <time>2017-07-02T12:32:35Z</time>
      </trkpt>
      <trkpt lat="42.4144" lon="0.13102">
        <ele>538.9</ele>
        <time>2017-07-02T12:32:36Z</time>
      </trkpt>
      <trkpt lat="42.41442" lon="0.13109">
        <ele>538.9</ele>
        <time>2017-07-02T12:32:37Z</time>
      </trkpt>
      <trkpt lat="42.41444" lon="0.13119">
        <ele>538.9</ele>
        <time>2017-07-02T12:32:38Z</time>
      </trkpt>
      <trkpt lat="42.41445" lon="0.13126">
        <ele>538.9</ele>
        <time>2017-07-02T12:32:39Z</time>
      </trkpt>
      <trkpt lat="42.41447" lon="0.13134">
        <ele>538.9</ele>
        <time>2017-07-02T12:32:40Z</time>
      </trkpt>
      <trkpt lat="42.41448" lon="0.1314">
        <ele>538.9</ele>
        <time>2017-07-02T12:32:41Z</time>
      </trkpt>
      <trkpt lat="42.4145" lon="0.13147">
        <ele>538.9</ele>
        <time>2017-07-02T12:32:42Z</time>
      </trkpt>
      <trkpt lat="42.41452" lon="0.13154">
        <ele>538.9</ele>
        <time>2017-07-02T12:32:43Z</time>
      </trkpt>
      <trkpt lat="42.41454" lon="0.13162">
        <ele>538.9</ele>
        <time>2017-07-02T12:32:44Z</time>
      </trkpt>
      <trkpt lat="42.41456" lon="0.13169">
        <ele>539</ele>
        <time>2017-07-02T12:32:45Z</time>
      </trkpt>
      <trkpt lat="42.41457" lon="0.13176">
        <ele>539</ele>
        <time>2017-07-02T12:32:46Z</time>
      </trkpt>
      <trkpt lat="42.41458" lon="0.13183">
        <ele>539</ele>
        <time>2017-07-02T12:32:47Z</time>
      </trkpt>
      <trkpt lat="42.4146" lon="0.1319">
        <ele>539</ele>
        <time>2017-07-02T12:32:48Z</time>
      </trkpt>
      <trkpt lat="42.41461" lon="0.13197">
        <ele>539</ele>
        <time>2017-07-02T12:32:49Z</time>
      </trkpt>
      <trkpt lat="42.41462" lon="0.13205">
        <ele>539</ele>
        <time>2017-07-02T12:32:50Z</time>
      </trkpt>
      <trkpt lat="42.41464" lon="0.13213">
        <ele>539</ele>
        <time>2017-07-02T12:32:51Z</time>
      </trkpt>
      <trkpt lat="42.41465" lon="0.13221">
        <ele>539</ele>
        <time>2017-07-02T12:32:52Z</time>
      </trkpt>
      <trkpt lat="42.41466" lon="0.13229">
        <ele>539</ele>
        <time>2017-07-02T12:32:53Z</time>
      </trkpt>
      <trkpt lat="42.41467" lon="0.13238">
        <ele>539</ele>
        <time>2017-07-02T12:32:54Z</time>
      </trkpt>
      <trkpt lat="42.41468" lon="0.13245">
        <ele>539</ele>
        <time>2017-07-02T12:32:55Z</time>
      </trkpt>
      <trkpt lat="42.41468" lon="0.13254">
        <ele>539</ele>
        <time>2017-07-02T12:32:56Z</time>
      </trkpt>
      <trkpt lat="42.4147" lon="0.13261">
        <ele>538.9</ele>
        <time>2017-07-02T12:32:57Z</time>
      </trkpt>
      <trkpt lat="42.4147" lon="0.13268">
        <ele>538.9</ele>
        <time>2017-07-02T12:32:58Z</time>
      </trkpt>
      <trkpt lat="42.4147" lon="0.13276">
        <ele>538.9</ele>
        <time>2017-07-02T12:32:59Z</time>
      </trkpt>
      <trkpt lat="42.4147" lon="0.13284">
        <ele>538.8</ele>
        <time>2017-07-02T12:33:00Z</time>
      </trkpt>
      <trkpt lat="42.4147" lon="0.13293">
        <ele>538.7</ele>
        <time>2017-07-02T12:33:01Z</time>
      </trkpt>
      <trkpt lat="42.41469" lon="0.13301">
        <ele>538.5</ele>
        <time>2017-07-02T12:33:02Z</time>
      </trkpt>
      <trkpt lat="42.41467" lon="0.13309">
        <ele>538.3</ele>
        <time>2017-07-02T12:33:03Z</time>
      </trkpt>
      <trkpt lat="42.41466" lon="0.13316">
        <ele>538.2</ele>
        <time>2017-07-02T12:33:04Z</time>
      </trkpt>
      <trkpt lat="42.41465" lon="0.13324">
        <ele>538.2</ele>
        <time>2017-07-02T12:33:05Z</time>
      </trkpt>
      <trkpt lat="42.41464" lon="0.1333">
        <ele>538.2</ele>
        <time>2017-07-02T12:33:06Z</time>
      </trkpt>
      <trkpt lat="42.41462" lon="0.13337">
        <ele>538.2</ele>
        <time>2017-07-02T12:33:07Z</time>
      </trkpt>
      <trkpt lat="42.41461" lon="0.13343">
        <ele>538.2</ele>
        <time>2017-07-02T12:33:08Z</time>
      </trkpt>
      <trkpt lat="42.4146" lon="0.1335">
        <ele>538.2</ele>
        <time>2017-07-02T12:33:09Z</time>
      </trkpt>
      <trkpt lat="42.41458" lon="0.13356">
        <ele>538.2</ele>
        <time>2017-07-02T12:33:10Z</time>
      </trkpt>
      <trkpt lat="42.41458" lon="0.13363">
        <ele>538.2</ele>
        <time>2017-07-02T12:33:11Z</time>
      </trkpt>
      <trkpt lat="42.41456" lon="0.1337">
        <ele>538.2</ele>
        <time>2017-07-02T12:33:12Z</time>
      </trkpt>
      <trkpt lat="42.41454" lon="0.13377">
        <ele>538.2</ele>
        <time>2017-07-02T12:33:13Z</time>
      </trkpt>
      <trkpt lat="42.41452" lon="0.13384">
        <ele>538.2</ele>
        <time>2017-07-02T12:33:14Z</time>
      </trkpt>
      <trkpt lat="42.41451" lon="0.1339">
        <ele>538.2</ele>
        <time>2017-07-02T12:33:15Z</time>
      </trkpt>
      <trkpt lat="42.4145" lon="0.13397">
        <ele>538.2</ele>
        <time>2017-07-02T12:33:16Z</time>
      </trkpt>
      <trkpt lat="42.4145" lon="0.13404">
        <ele>538.2</ele>
        <time>2017-07-02T12:33:17Z</time>
      </trkpt>
      <trkpt lat="42.41449" lon="0.13411">
        <ele>538.3</ele>
        <time>2017-07-02T12:33:18Z</time>
      </trkpt>
      <trkpt lat="42.41447" lon="0.13419">
        <ele>538.3</ele>
        <time>2017-07-02T12:33:19Z</time>
      </trkpt>
      <trkpt lat="42.41445" lon="0.13426">
        <ele>538.3</ele>
        <time>2017-07-02T12:33:20Z</time>
      </trkpt>
      <trkpt lat="42.41443" lon="0.13434">
        <ele>538.3</ele>
        <time>2017-07-02T12:33:21Z</time>
      </trkpt>
      <trkpt lat="42.41441" lon="0.13441">
        <ele>538.3</ele>
        <time>2017-07-02T12:33:22Z</time>
      </trkpt>
      <trkpt lat="42.41439" lon="0.13449">
        <ele>538.3</ele>
        <time>2017-07-02T12:33:23Z</time>
      </trkpt>
      <trkpt lat="42.41436" lon="0.13457">
        <ele>538.4</ele>
        <time>2017-07-02T12:33:24Z</time>
      </trkpt>
      <trkpt lat="42.41434" lon="0.13465">
        <ele>538.4</ele>
        <time>2017-07-02T12:33:25Z</time>
      </trkpt>
      <trkpt lat="42.41431" lon="0.13473">
        <ele>538.4</ele>
        <time>2017-07-02T12:33:26Z</time>
      </trkpt>
      <trkpt lat="42.41428" lon="0.13481">
        <ele>538.4</ele>
        <time>2017-07-02T12:33:27Z</time>
      </trkpt>
      <trkpt lat="42.41425" lon="0.1349">
        <ele>538.4</ele>
        <time>2017-07-02T12:33:28Z</time>
      </trkpt>
      <trkpt lat="42.41423" lon="0.13497">
        <ele>538.4</ele>
        <time>2017-07-02T12:33:29Z</time>
      </trkpt>
      <trkpt lat="42.4142" lon="0.13504">
        <ele>538.5</ele>
        <time>2017-07-02T12:33:30Z</time>
      </trkpt>
      <trkpt lat="42.41417" lon="0.13511">
        <ele>538.5</ele>
        <time>2017-07-02T12:33:31Z</time>
      </trkpt>
      <trkpt lat="42.41415" lon="0.13518">
        <ele>538.5</ele>
        <time>2017-07-02T12:33:32Z</time>
      </trkpt>
      <trkpt lat="42.41412" lon="0.13525">
        <ele>538.5</ele>
        <time>2017-07-02T12:33:33Z</time>
      </trkpt>
      <trkpt lat="42.41409" lon="0.13533">
        <ele>538.5</ele>
        <time>2017-07-02T12:33:34Z</time>
      </trkpt>
      <trkpt lat="42.41406" lon="0.1354">
        <ele>538.6</ele>
        <time>2017-07-02T12:33:35Z</time>
      </trkpt>
      <trkpt lat="42.41403" lon="0.13547">
        <ele>538.6</ele>
        <time>2017-07-02T12:33:36Z</time>
      </trkpt>
      <trkpt lat="42.414" lon="0.13554">
        <ele>538.6</ele>
        <time>2017-07-02T12:33:37Z</time>
      </trkpt>
      <trkpt lat="42.41396" lon="0.1356">
        <ele>538.6</ele>
        <time>2017-07-02T12:33:38Z</time>
      </trkpt>
      <trkpt lat="42.41393" lon="0.13566">
        <ele>538.6</ele>
        <time>2017-07-02T12:33:39Z</time>
      </trkpt>
      <trkpt lat="42.41389" lon="0.13573">
        <ele>538.6</ele>
        <time>2017-07-02T12:33:40Z</time>
      </trkpt>
      <trkpt lat="42.41386" lon="0.13579">
        <ele>538.6</ele>
        <time>2017-07-02T12:33:41Z</time>
      </trkpt>
      <trkpt lat="42.41383" lon="0.13586">
        <ele>538.7</ele>
        <time>2017-07-02T12:33:42Z</time>
      </trkpt>
      <trkpt lat="42.41378" lon="0.13592">
        <ele>538.6</ele>
        <time>2017-07-02T12:33:43Z</time>
      </trkpt>
      <trkpt lat="42.41375" lon="0.13598">
        <ele>538.6</ele>
        <time>2017-07-02T12:33:44Z</time>
      </trkpt>
      <trkpt lat="42.41371" lon="0.13605">
        <ele>538.6</ele>
        <time>2017-07-02T12:33:45Z</time>
      </trkpt>
      <trkpt lat="42.41368" lon="0.13611">
        <ele>538.6</ele>
        <time>2017-07-02T12:33:46Z</time>
      </trkpt>
      <trkpt lat="42.41365" lon="0.13617">
        <ele>538.6</ele>
        <time>2017-07-02T12:33:47Z</time>
      </trkpt>
      <trkpt lat="42.41361" lon="0.13624">
        <ele>538.5</ele>
        <time>2017-07-02T12:33:48Z</time>
      </trkpt>
      <trkpt lat="42.41357" lon="0.13629">
        <ele>538.3</ele>
        <time>2017-07-02T12:33:49Z</time>
      </trkpt>
      <trkpt lat="42.41353" lon="0.13636">
        <ele>538.2</ele>
        <time>2017-07-02T12:33:50Z</time>
      </trkpt>
      <trkpt lat="42.4135" lon="0.13643">
        <ele>538</ele>
        <time>2017-07-02T12:33:51Z</time>
      </trkpt>
      <trkpt lat="42.41347" lon="0.1365">
        <ele>537.9</ele>
        <time>2017-07-02T12:33:52Z</time>
      </trkpt>
      <trkpt lat="42.41343" lon="0.13656">
        <ele>537.8</ele>
        <time>2017-07-02T12:33:53Z</time>
      </trkpt>
      <trkpt lat="42.4134" lon="0.13661">
        <ele>537.8</ele>
        <time>2017-07-02T12:33:54Z</time>
      </trkpt>
      <trkpt lat="42.41337" lon="0.13667">
        <ele>537.8</ele>
        <time>2017-07-02T12:33:55Z</time>
      </trkpt>
      <trkpt lat="42.41334" lon="0.13675">
        <ele>537.8</ele>
        <time>2017-07-02T12:33:56Z</time>
      </trkpt>
      <trkpt lat="42.4133" lon="0.13682">
        <ele>537.8</ele>
        <time>2017-07-02T12:33:57Z</time>
      </trkpt>
      <trkpt lat="42.41326" lon="0.1369">
        <ele>537.8</ele>
        <time>2017-07-02T12:33:58Z</time>
      </trkpt>
      <trkpt lat="42.41322" lon="0.13697">
        <ele>537.8</ele>
        <time>2017-07-02T12:33:59Z</time>
      </trkpt>
      <trkpt lat="42.41318" lon="0.13705">
        <ele>537.8</ele>
        <time>2017-07-02T12:34:00Z</time>
      </trkpt>
      <trkpt lat="42.41314" lon="0.13712">
        <ele>537.8</ele>
        <time>2017-07-02T12:34:01Z</time>
      </trkpt>
      <trkpt lat="42.4131" lon="0.13719">
        <ele>537.8</ele>
        <time>2017-07-02T12:34:02Z</time>
      </trkpt>
      <trkpt lat="42.41306" lon="0.13726">
        <ele>537.8</ele>
        <time>2017-07-02T12:34:03Z</time>
      </trkpt>
      <trkpt lat="42.41303" lon="0.13733">
        <ele>537.8</ele>
        <time>2017-07-02T12:34:04Z</time>
      </trkpt>
      <trkpt lat="42.413" lon="0.1374">
        <ele>537.8</ele>
        <time>2017-07-02T12:34:05Z</time>
      </trkpt>
      <trkpt lat="42.41297" lon="0.13746">
        <ele>537.8</ele>
        <time>2017-07-02T12:34:06Z</time>
      </trkpt>
      <trkpt lat="42.41295" lon="0.13753">
        <ele>537.8</ele>
        <time>2017-07-02T12:34:07Z</time>
      </trkpt>
      <trkpt lat="42.41293" lon="0.1376">
        <ele>537.8</ele>
        <time>2017-07-02T12:34:08Z</time>
      </trkpt>
      <trkpt lat="42.41291" lon="0.13766">
        <ele>537.8</ele>
        <time>2017-07-02T12:34:09Z</time>
      </trkpt>
      <trkpt lat="42.41289" lon="0.13772">
        <ele>537.8</ele>
        <time>2017-07-02T12:34:10Z</time>
      </trkpt>
      <trkpt lat="42.41288" lon="0.13778">
        <ele>537.8</ele>
        <time>2017-07-02T12:34:11Z</time>
      </trkpt>
      <trkpt lat="42.41286" lon="0.13785">
        <ele>537.8</ele>
        <time>2017-07-02T12:34:12Z</time>
      </trkpt>
      <trkpt lat="42.41284" lon="0.13791">
        <ele>537.8</ele>
        <time>2017-07-02T12:34:13Z</time>
      </trkpt>
      <trkpt lat="42.41282" lon="0.13798">
        <ele>537.8</ele>
        <time>2017-07-02T12:34:14Z</time>
      </trkpt>
      <trkpt lat="42.4128" lon="0.13805">
        <ele>537.7</ele>
        <time>2017-07-02T12:34:15Z</time>
      </trkpt>
      <trkpt lat="42.41279" lon="0.13812">
        <ele>537.7</ele>
        <time>2017-07-02T12:34:16Z</time>
      </trkpt>
      <trkpt lat="42.41277" lon="0.13819">
        <ele>537.6</ele>
        <time>2017-07-02T12:34:17Z</time>
      </trkpt>
      <trkpt lat="42.41275" lon="0.13826">
        <ele>537.6</ele>
        <time>2017-07-02T12:34:18Z</time>
      </trkpt>
      <trkpt lat="42.41274" lon="0.13834">
        <ele>537.5</ele>
        <time>2017-07-02T12:34:19Z</time>
      </trkpt>
      <trkpt lat="42.41273" lon="0.13842">
        <ele>537.4</ele>
        <time>2017-07-02T12:34:20Z</time>
      </trkpt>
      <trkpt lat="42.41272" lon="0.1385">
        <ele>537.2</ele>
        <time>2017-07-02T12:34:21Z</time>
      </trkpt>
      <trkpt lat="42.41272" lon="0.13857">
        <ele>537</ele>
        <time>2017-07-02T12:34:22Z</time>
      </trkpt>
      <trkpt lat="42.41272" lon="0.13864">
        <ele>537</ele>
        <time>2017-07-02T12:34:23Z</time>
      </trkpt>
      <trkpt lat="42.41272" lon="0.13872">
        <ele>536.9</ele>
        <time>2017-07-02T12:34:24Z</time>
      </trkpt>
      <trkpt lat="42.41272" lon="0.13879">
        <ele>536.9</ele>
        <time>2017-07-02T12:34:25Z</time>
      </trkpt>
      <trkpt lat="42.41272" lon="0.13887">
        <ele>536.9</ele>
        <time>2017-07-02T12:34:26Z</time>
      </trkpt>
      <trkpt lat="42.41273" lon="0.13894">
        <ele>536.8</ele>
        <time>2017-07-02T12:34:27Z</time>
      </trkpt>
      <trkpt lat="42.41273" lon="0.13901">
        <ele>536.8</ele>
        <time>2017-07-02T12:34:28Z</time>
      </trkpt>
      <trkpt lat="42.41273" lon="0.13909">
        <ele>536.8</ele>
        <time>2017-07-02T12:34:29Z</time>
      </trkpt>
      <trkpt lat="42.41273" lon="0.13916">
        <ele>536.8</ele>
        <time>2017-07-02T12:34:30Z</time>
      </trkpt>
      <trkpt lat="42.41273" lon="0.13923">
        <ele>536.8</ele>
        <time>2017-07-02T12:34:31Z</time>
      </trkpt>
      <trkpt lat="42.41272" lon="0.1393">
        <ele>536.8</ele>
        <time>2017-07-02T12:34:32Z</time>
      </trkpt>
      <trkpt lat="42.41271" lon="0.13937">
        <ele>536.8</ele>
        <time>2017-07-02T12:34:33Z</time>
      </trkpt>
      <trkpt lat="42.41269" lon="0.13944">
        <ele>536.8</ele>
        <time>2017-07-02T12:34:34Z</time>
      </trkpt>
      <trkpt lat="42.41268" lon="0.13949">
        <ele>536.8</ele>
        <time>2017-07-02T12:34:35Z</time>
      </trkpt>
      <trkpt lat="42.41266" lon="0.13954">
        <ele>536.8</ele>
        <time>2017-07-02T12:34:36Z</time>
      </trkpt>
      <trkpt lat="42.41262" lon="0.13959">
        <ele>536.8</ele>
        <time>2017-07-02T12:34:37Z</time>
      </trkpt>
      <trkpt lat="42.41259" lon="0.13962">
        <ele>536.8</ele>
        <time>2017-07-02T12:34:38Z</time>
      </trkpt>
      <trkpt lat="42.41256" lon="0.13965">
        <ele>536.9</ele>
        <time>2017-07-02T12:34:39Z</time>
      </trkpt>
      <trkpt lat="42.41253" lon="0.13967">
        <ele>536.9</ele>
        <time>2017-07-02T12:34:40Z</time>
      </trkpt>
      <trkpt lat="42.41249" lon="0.13968">
        <ele>536.9</ele>
        <time>2017-07-02T12:34:41Z</time>
      </trkpt>
      <trkpt lat="42.41246" lon="0.13969">
        <ele>537</ele>
        <time>2017-07-02T12:34:42Z</time>
      </trkpt>
      <trkpt lat="42.41242" lon="0.1397">
        <ele>537</ele>
        <time>2017-07-02T12:34:43Z</time>
      </trkpt>
      <trkpt lat="42.41239" lon="0.13971">
        <ele>537</ele>
        <time>2017-07-02T12:34:44Z</time>
      </trkpt>
      <trkpt lat="42.41236" lon="0.13973">
        <ele>537</ele>
        <time>2017-07-02T12:34:45Z</time>
      </trkpt>
      <trkpt lat="42.41234" lon="0.13975">
        <ele>537</ele>
        <time>2017-07-02T12:34:46Z</time>
      </trkpt>
      <trkpt lat="42.41231" lon="0.13977">
        <ele>537</ele>
        <time>2017-07-02T12:34:47Z</time>
      </trkpt>
      <trkpt lat="42.41228" lon="0.1398">
        <ele>537</ele>
        <time>2017-07-02T12:34:48Z</time>
      </trkpt>
      <trkpt lat="42.41225" lon="0.13982">
        <ele>537</ele>
        <time>2017-07-02T12:34:49Z</time>
      </trkpt>
      <trkpt lat="42.41222" lon="0.13984">
        <ele>537</ele>
        <time>2017-07-02T12:34:50Z</time>
      </trkpt>
      <trkpt lat="42.41219" lon="0.13985">
        <ele>537</ele>
        <time>2017-07-02T12:34:51Z</time>
      </trkpt>
      <trkpt lat="42.41216" lon="0.13986">
        <ele>537</ele>
        <time>2017-07-02T12:34:52Z</time>
      </trkpt>
      <trkpt lat="42.41214" lon="0.13988">
        <ele>537</ele>
        <time>2017-07-02T12:34:53Z</time>
      </trkpt>
      <trkpt lat="42.41212" lon="0.13991">
        <ele>537</ele>
        <time>2017-07-02T12:34:54Z</time>
      </trkpt>
      <trkpt lat="42.4121" lon="0.13994">
        <ele>537</ele>
        <time>2017-07-02T12:34:55Z</time>
      </trkpt>
      <trkpt lat="42.4121" lon="0.13998">
        <ele>537</ele>
        <time>2017-07-02T12:34:56Z</time>
      </trkpt>
      <trkpt lat="42.4121" lon="0.14003">
        <ele>537</ele>
        <time>2017-07-02T12:34:57Z</time>
      </trkpt>
      <trkpt lat="42.41212" lon="0.14009">
        <ele>537</ele>
        <time>2017-07-02T12:34:58Z</time>
      </trkpt>
      <trkpt lat="42.41214" lon="0.14016">
        <ele>537</ele>
        <time>2017-07-02T12:34:59Z</time>
      </trkpt>
      <trkpt lat="42.41218" lon="0.14022">
        <ele>537</ele>
        <time>2017-07-02T12:35:00Z</time>
      </trkpt>
      <trkpt lat="42.41222" lon="0.14028">
        <ele>537</ele>
        <time>2017-07-02T12:35:01Z</time>
      </trkpt>
      <trkpt lat="42.41226" lon="0.14033">
        <ele>537</ele>
        <time>2017-07-02T12:35:02Z</time>
      </trkpt>
      <trkpt lat="42.4123" lon="0.14037">
        <ele>537</ele>
        <time>2017-07-02T12:35:03Z</time>
      </trkpt>
      <trkpt lat="42.41234" lon="0.14041">
        <ele>537</ele>
        <time>2017-07-02T12:35:04Z</time>
      </trkpt>
      <trkpt lat="42.41237" lon="0.14045">
        <ele>537</ele>
        <time>2017-07-02T12:35:05Z</time>
      </trkpt>
      <trkpt lat="42.41241" lon="0.14048">
        <ele>536.1</ele>
        <time>2017-07-02T12:35:06Z</time>
      </trkpt>
      <trkpt lat="42.41245" lon="0.14049">
        <ele>534.7</ele>
        <time>2017-07-02T12:35:07Z</time>
      </trkpt>
      <trkpt lat="42.4125" lon="0.1405">
        <ele>533</ele>
        <time>2017-07-02T12:35:08Z</time>
      </trkpt>
      <trkpt lat="42.41255" lon="0.14049">
        <ele>533</ele>
        <time>2017-07-02T12:35:09Z</time>
      </trkpt>
      <trkpt lat="42.41261" lon="0.14049">
        <ele>533</ele>
        <time>2017-07-02T12:35:10Z</time>
      </trkpt>
      <trkpt lat="42.41266" lon="0.14049">
        <ele>533</ele>
        <time>2017-07-02T12:35:11Z</time>
      </trkpt>
      <trkpt lat="42.41272" lon="0.14049">
        <ele>532.8</ele>
        <time>2017-07-02T12:35:12Z</time>
      </trkpt>
      <trkpt lat="42.41277" lon="0.14048">
        <ele>532.5</ele>
        <time>2017-07-02T12:35:13Z</time>
      </trkpt>
      <trkpt lat="42.41283" lon="0.14047">
        <ele>532.2</ele>
        <time>2017-07-02T12:35:14Z</time>
      </trkpt>
      <trkpt lat="42.41288" lon="0.14046">
        <ele>531.9</ele>
        <time>2017-07-02T12:35:15Z</time>
      </trkpt>
      <trkpt lat="42.41294" lon="0.14046">
        <ele>531.5</ele>
        <time>2017-07-02T12:35:16Z</time>
      </trkpt>
      <trkpt lat="42.413" lon="0.14045">
        <ele>531.1</ele>
        <time>2017-07-02T12:35:17Z</time>
      </trkpt>
      <trkpt lat="42.41305" lon="0.14044">
        <ele>530.7</ele>
        <time>2017-07-02T12:35:18Z</time>
      </trkpt>
      <trkpt lat="42.41311" lon="0.14043">
        <ele>530.3</ele>
        <time>2017-07-02T12:35:19Z</time>
      </trkpt>
      <trkpt lat="42.41317" lon="0.14042">
        <ele>530</ele>
        <time>2017-07-02T12:35:20Z</time>
      </trkpt>
      <trkpt lat="42.41322" lon="0.14042">
        <ele>529.7</ele>
        <time>2017-07-02T12:35:21Z</time>
      </trkpt>
      <trkpt lat="42.41328" lon="0.14041">
        <ele>529.4</ele>
        <time>2017-07-02T12:35:22Z</time>
      </trkpt>
      <trkpt lat="42.41333" lon="0.1404">
        <ele>529.2</ele>
        <time>2017-07-02T12:35:23Z</time>
      </trkpt>
      <trkpt lat="42.41337" lon="0.14039">
        <ele>529.1</ele>
        <time>2017-07-02T12:35:24Z</time>
      </trkpt>
      <trkpt lat="42.41341" lon="0.14039">
        <ele>528.9</ele>
        <time>2017-07-02T12:35:25Z</time>
      </trkpt>
      <trkpt lat="42.41346" lon="0.14039">
        <ele>528.7</ele>
        <time>2017-07-02T12:35:26Z</time>
      </trkpt>
      <trkpt lat="42.41352" lon="0.14039">
        <ele>528.5</ele>
        <time>2017-07-02T12:35:27Z</time>
      </trkpt>
      <trkpt lat="42.41358" lon="0.14039">
        <ele>528.2</ele>
        <time>2017-07-02T12:35:28Z</time>
      </trkpt>
      <trkpt lat="42.41364" lon="0.14039">
        <ele>528</ele>
        <time>2017-07-02T12:35:29Z</time>
      </trkpt>
      <trkpt lat="42.41369" lon="0.14038">
        <ele>528</ele>
        <time>2017-07-02T12:35:30Z</time>
      </trkpt>
      <trkpt lat="42.41374" lon="0.14038">
        <ele>529</ele>
        <time>2017-07-02T12:35:31Z</time>
      </trkpt>
      <trkpt lat="42.41381" lon="0.14037">
        <ele>529.8</ele>
        <time>2017-07-02T12:35:32Z</time>
      </trkpt>
      <trkpt lat="42.41386" lon="0.14037">
        <ele>530.5</ele>
        <time>2017-07-02T12:35:33Z</time>
      </trkpt>
      <trkpt lat="42.41391" lon="0.14037">
        <ele>531.2</ele>
        <time>2017-07-02T12:35:34Z</time>
      </trkpt>
      <trkpt lat="42.41397" lon="0.14036">
        <ele>532</ele>
        <time>2017-07-02T12:35:35Z</time>
      </trkpt>
      <trkpt lat="42.41402" lon="0.14035">
        <ele>532.5</ele>
        <time>2017-07-02T12:35:36Z</time>
      </trkpt>
      <trkpt lat="42.41407" lon="0.14034">
        <ele>532.8</ele>
        <time>2017-07-02T12:35:37Z</time>
      </trkpt>
      <trkpt lat="42.41413" lon="0.14033">
        <ele>533.3</ele>
        <time>2017-07-02T12:35:38Z</time>
      </trkpt>
      <trkpt lat="42.41419" lon="0.14032">
        <ele>533.7</ele>
        <time>2017-07-02T12:35:39Z</time>
      </trkpt>
      <trkpt lat="42.41423" lon="0.14029">
        <ele>533.9</ele>
        <time>2017-07-02T12:35:40Z</time>
      </trkpt>
      <trkpt lat="42.41427" lon="0.14027">
        <ele>534</ele>
        <time>2017-07-02T12:35:41Z</time>
      </trkpt>
      <trkpt lat="42.41432" lon="0.14027">
        <ele>534</ele>
        <time>2017-07-02T12:35:42Z</time>
      </trkpt>
      <trkpt lat="42.41437" lon="0.14027">
        <ele>534</ele>
        <time>2017-07-02T12:35:43Z</time>
      </trkpt>
      <trkpt lat="42.41442" lon="0.14027">
        <ele>534</ele>
        <time>2017-07-02T12:35:44Z</time>
      </trkpt>
      <trkpt lat="42.41446" lon="0.14027">
        <ele>534</ele>
        <time>2017-07-02T12:35:45Z</time>
      </trkpt>
      <trkpt lat="42.41449" lon="0.14028">
        <ele>534</ele>
        <time>2017-07-02T12:35:46Z</time>
      </trkpt>
      <trkpt lat="42.41453" lon="0.14028">
        <ele>534</ele>
        <time>2017-07-02T12:35:48Z</time>
      </trkpt>
      <trkpt lat="42.41456" lon="0.14031">
        <ele>534</ele>
        <time>2017-07-02T12:35:51Z</time>
      </trkpt>
      <trkpt lat="42.4146" lon="0.14036">
        <ele>534</ele>
        <time>2017-07-02T12:35:53Z</time>
      </trkpt>
      <trkpt lat="42.41462" lon="0.1404">
        <ele>534</ele>
        <time>2017-07-02T12:35:54Z</time>
      </trkpt>
      <trkpt lat="42.41463" lon="0.14045">
        <ele>534</ele>
        <time>2017-07-02T12:35:55Z</time>
      </trkpt>
      <trkpt lat="42.41464" lon="0.1405">
        <ele>534</ele>
        <time>2017-07-02T12:35:56Z</time>
      </trkpt>
      <trkpt lat="42.41465" lon="0.14055">
        <ele>534</ele>
        <time>2017-07-02T12:35:57Z</time>
      </trkpt>
      <trkpt lat="42.41465" lon="0.14061">
        <ele>534</ele>
        <time>2017-07-02T12:35:58Z</time>
      </trkpt>
      <trkpt lat="42.41466" lon="0.14067">
        <ele>534.1</ele>
        <time>2017-07-02T12:35:59Z</time>
      </trkpt>
      <trkpt lat="42.41467" lon="0.14073">
        <ele>534.2</ele>
        <time>2017-07-02T12:36:00Z</time>
      </trkpt>
      <trkpt lat="42.41468" lon="0.14078">
        <ele>534.3</ele>
        <time>2017-07-02T12:36:01Z</time>
      </trkpt>
      <trkpt lat="42.41468" lon="0.14084">
        <ele>534.4</ele>
        <time>2017-07-02T12:36:02Z</time>
      </trkpt>
      <trkpt lat="42.41469" lon="0.1409">
        <ele>534.5</ele>
        <time>2017-07-02T12:36:03Z</time>
      </trkpt>
      <trkpt lat="42.4147" lon="0.14096">
        <ele>534.6</ele>
        <time>2017-07-02T12:36:04Z</time>
      </trkpt>
      <trkpt lat="42.4147" lon="0.14101">
        <ele>534.7</ele>
        <time>2017-07-02T12:36:05Z</time>
      </trkpt>
      <trkpt lat="42.41471" lon="0.14107">
        <ele>534.8</ele>
        <time>2017-07-02T12:36:06Z</time>
      </trkpt>
      <trkpt lat="42.41471" lon="0.14113">
        <ele>535</ele>
        <time>2017-07-02T12:36:07Z</time>
      </trkpt>
      <trkpt lat="42.41472" lon="0.14118">
        <ele>535.1</ele>
        <time>2017-07-02T12:36:08Z</time>
      </trkpt>
      <trkpt lat="42.41473" lon="0.14124">
        <ele>535.2</ele>
        <time>2017-07-02T12:36:09Z</time>
      </trkpt>
      <trkpt lat="42.41473" lon="0.14129">
        <ele>535.4</ele>
        <time>2017-07-02T12:36:10Z</time>
      </trkpt>
      <trkpt lat="42.41474" lon="0.14134">
        <ele>535.5</ele>
        <time>2017-07-02T12:36:11Z</time>
      </trkpt>
      <trkpt lat="42.41475" lon="0.1414">
        <ele>535.6</ele>
        <time>2017-07-02T12:36:12Z</time>
      </trkpt>
      <trkpt lat="42.41476" lon="0.14147">
        <ele>535.7</ele>
        <time>2017-07-02T12:36:13Z</time>
      </trkpt>
      <trkpt lat="42.41478" lon="0.14154">
        <ele>535.9</ele>
        <time>2017-07-02T12:36:14Z</time>
      </trkpt>
      <trkpt lat="42.41478" lon="0.1416">
        <ele>536</ele>
        <time>2017-07-02T12:36:15Z</time>
      </trkpt>
      <trkpt lat="42.41479" lon="0.14167">
        <ele>536</ele>
        <time>2017-07-02T12:36:16Z</time>
      </trkpt>
      <trkpt lat="42.4148" lon="0.14173">
        <ele>535.7</ele>
        <time>2017-07-02T12:36:17Z</time>
      </trkpt>
      <trkpt lat="42.41482" lon="0.14179">
        <ele>535.4</ele>
        <time>2017-07-02T12:36:18Z</time>
      </trkpt>
      <trkpt lat="42.41483" lon="0.14185">
        <ele>535.1</ele>
        <time>2017-07-02T12:36:19Z</time>
      </trkpt>
      <trkpt lat="42.41483" lon="0.14192">
        <ele>534.8</ele>
        <time>2017-07-02T12:36:20Z</time>
      </trkpt>
      <trkpt lat="42.41484" lon="0.14199">
        <ele>534.5</ele>
        <time>2017-07-02T12:36:21Z</time>
      </trkpt>
      <trkpt lat="42.41485" lon="0.14205">
        <ele>534.2</ele>
        <time>2017-07-02T12:36:22Z</time>
      </trkpt>
      <trkpt lat="42.41486" lon="0.14211">
        <ele>533.9</ele>
        <time>2017-07-02T12:36:23Z</time>
      </trkpt>
      <trkpt lat="42.41487" lon="0.14217">
        <ele>533.6</ele>
        <time>2017-07-02T12:36:24Z</time>
      </trkpt>
      <trkpt lat="42.41488" lon="0.14223">
        <ele>533.3</ele>
        <time>2017-07-02T12:36:25Z</time>
      </trkpt>
      <trkpt lat="42.41489" lon="0.1423">
        <ele>533.1</ele>
        <time>2017-07-02T12:36:26Z</time>
      </trkpt>
      <trkpt lat="42.4149" lon="0.14236">
        <ele>532.8</ele>
        <time>2017-07-02T12:36:27Z</time>
      </trkpt>
      <trkpt lat="42.4149" lon="0.14242">
        <ele>532.6</ele>
        <time>2017-07-02T12:36:28Z</time>
      </trkpt>
      <trkpt lat="42.41491" lon="0.14248">
        <ele>532.3</ele>
        <time>2017-07-02T12:36:29Z</time>
      </trkpt>
      <trkpt lat="42.41492" lon="0.14254">
        <ele>532.1</ele>
        <time>2017-07-02T12:36:30Z</time>
      </trkpt>
      <trkpt lat="42.41493" lon="0.1426">
        <ele>531.8</ele>
        <time>2017-07-02T12:36:31Z</time>
      </trkpt>
      <trkpt lat="42.41494" lon="0.14266">
        <ele>531.6</ele>
        <time>2017-07-02T12:36:32Z</time>
      </trkpt>
      <trkpt lat="42.41495" lon="0.14272">
        <ele>531.4</ele>
        <time>2017-07-02T12:36:33Z</time>
      </trkpt>
      <trkpt lat="42.41496" lon="0.14278">
        <ele>531.1</ele>
        <time>2017-07-02T12:36:34Z</time>
      </trkpt>
      <trkpt lat="42.41497" lon="0.14284">
        <ele>530.8</ele>
        <time>2017-07-02T12:36:35Z</time>
      </trkpt>
      <trkpt lat="42.41498" lon="0.14289">
        <ele>530.4</ele>
        <time>2017-07-02T12:36:36Z</time>
      </trkpt>
      <trkpt lat="42.41498" lon="0.14295">
        <ele>530.1</ele>
        <time>2017-07-02T12:36:37Z</time>
      </trkpt>
      <trkpt lat="42.41499" lon="0.14301">
        <ele>529.7</ele>
        <time>2017-07-02T12:36:38Z</time>
      </trkpt>
      <trkpt lat="42.415" lon="0.14307">
        <ele>529.2</ele>
        <time>2017-07-02T12:36:39Z</time>
      </trkpt>
      <trkpt lat="42.41501" lon="0.14312">
        <ele>528.9</ele>
        <time>2017-07-02T12:36:40Z</time>
      </trkpt>
      <trkpt lat="42.41502" lon="0.14318">
        <ele>528.5</ele>
        <time>2017-07-02T12:36:41Z</time>
      </trkpt>
      <trkpt lat="42.41503" lon="0.14323">
        <ele>528.1</ele>
        <time>2017-07-02T12:36:42Z</time>
      </trkpt>
      <trkpt lat="42.41504" lon="0.14329">
        <ele>527.6</ele>
        <time>2017-07-02T12:36:43Z</time>
      </trkpt>
      <trkpt lat="42.41504" lon="0.14334">
        <ele>526.9</ele>
        <time>2017-07-02T12:36:44Z</time>
      </trkpt>
      <trkpt lat="42.41505" lon="0.1434">
        <ele>526.5</ele>
        <time>2017-07-02T12:36:45Z</time>
      </trkpt>
      <trkpt lat="42.41506" lon="0.14345">
        <ele>526.1</ele>
        <time>2017-07-02T12:36:46Z</time>
      </trkpt>
      <trkpt lat="42.41507" lon="0.1435">
        <ele>525.6</ele>
        <time>2017-07-02T12:36:47Z</time>
      </trkpt>
      <trkpt lat="42.41508" lon="0.14356">
        <ele>525.2</ele>
        <time>2017-07-02T12:36:48Z</time>
      </trkpt>
      <trkpt lat="42.41509" lon="0.14361">
        <ele>525</ele>
        <time>2017-07-02T12:36:49Z</time>
      </trkpt>
      <trkpt lat="42.4151" lon="0.14367">
        <ele>525</ele>
        <time>2017-07-02T12:36:50Z</time>
      </trkpt>
      <trkpt lat="42.41511" lon="0.14373">
        <ele>525</ele>
        <time>2017-07-02T12:36:51Z</time>
      </trkpt>
      <trkpt lat="42.41511" lon="0.14378">
        <ele>525</ele>
        <time>2017-07-02T12:36:52Z</time>
      </trkpt>
      <trkpt lat="42.41512" lon="0.14384">
        <ele>525</ele>
        <time>2017-07-02T12:36:53Z</time>
      </trkpt>
      <trkpt lat="42.41512" lon="0.14389">
        <ele>525</ele>
        <time>2017-07-02T12:36:54Z</time>
      </trkpt>
      <trkpt lat="42.41513" lon="0.14395">
        <ele>525</ele>
        <time>2017-07-02T12:36:55Z</time>
      </trkpt>
      <trkpt lat="42.41513" lon="0.144">
        <ele>525</ele>
        <time>2017-07-02T12:36:56Z</time>
      </trkpt>
      <trkpt lat="42.41512" lon="0.14406">
        <ele>525</ele>
        <time>2017-07-02T12:36:57Z</time>
      </trkpt>
      <trkpt lat="42.41512" lon="0.14411">
        <ele>526.1</ele>
        <time>2017-07-02T12:36:58Z</time>
      </trkpt>
      <trkpt lat="42.4151" lon="0.14416">
        <ele>528</ele>
        <time>2017-07-02T12:36:59Z</time>
      </trkpt>
      <trkpt lat="42.41509" lon="0.1442">
        <ele>530</ele>
        <time>2017-07-02T12:37:00Z</time>
      </trkpt>
      <trkpt lat="42.41507" lon="0.14425">
        <ele>530</ele>
        <time>2017-07-02T12:37:01Z</time>
      </trkpt>
      <trkpt lat="42.41505" lon="0.14429">
        <ele>530</ele>
        <time>2017-07-02T12:37:02Z</time>
      </trkpt>
      <trkpt lat="42.41503" lon="0.14433">
        <ele>530</ele>
        <time>2017-07-02T12:37:03Z</time>
      </trkpt>
      <trkpt lat="42.41501" lon="0.14436">
        <ele>530</ele>
        <time>2017-07-02T12:37:04Z</time>
      </trkpt>
      <trkpt lat="42.41499" lon="0.14438">
        <ele>530</ele>
        <time>2017-07-02T12:37:05Z</time>
      </trkpt>
      <trkpt lat="42.41496" lon="0.14438">
        <ele>530</ele>
        <time>2017-07-02T12:37:06Z</time>
      </trkpt>
      <trkpt lat="42.41492" lon="0.14436">
        <ele>530</ele>
        <time>2017-07-02T12:37:07Z</time>
      </trkpt>
      <trkpt lat="42.4149" lon="0.14433">
        <ele>530</ele>
        <time>2017-07-02T12:37:08Z</time>
      </trkpt>
      <trkpt lat="42.41489" lon="0.14428">
        <ele>530</ele>
        <time>2017-07-02T12:37:09Z</time>
      </trkpt>
      <trkpt lat="42.41489" lon="0.14424">
        <ele>530</ele>
        <time>2017-07-02T12:37:10Z</time>
      </trkpt>
      <trkpt lat="42.41491" lon="0.1442">
        <ele>530</ele>
        <time>2017-07-02T12:37:11Z</time>
      </trkpt>
      <trkpt lat="42.41494" lon="0.14418">
        <ele>530</ele>
        <time>2017-07-02T12:37:12Z</time>
      </trkpt>
      <trkpt lat="42.41498" lon="0.14416">
        <ele>530</ele>
        <time>2017-07-02T12:37:14Z</time>
      </trkpt>
      <trkpt lat="42.41501" lon="0.14414">
        <ele>530</ele>
        <time>2017-07-02T12:37:16Z</time>
      </trkpt>
    </trkseg>
  </trk>
  <trk>
    <name><![CDATA[Zona zéro 10 et variante18]]></name>
    <extensions>
      <line xmlns="http://www.topografix.com/GPX/gpx_style/0/2">
        <color>FF0000</color>
        <width>4</width>
      </line>
    </extensions>
    <trkseg>
      <trkpt lat="42.44342" lon="0.06576">
        <ele>601.7</ele>
        <time>2016-07-31T07:35:15Z</time>
      </trkpt>
      <trkpt lat="42.44335" lon="0.0657">
        <ele>602.6</ele>
        <time>2016-07-31T07:38:06Z</time>
      </trkpt>
      <trkpt lat="42.44333" lon="0.06574">
        <ele>602.5</ele>
        <time>2016-07-31T07:38:28Z</time>
      </trkpt>
      <trkpt lat="42.44329" lon="0.06574">
        <ele>602.8</ele>
        <time>2016-07-31T07:38:45Z</time>
      </trkpt>
      <trkpt lat="42.44328" lon="0.06568">
        <ele>603.3</ele>
        <time>2016-07-31T07:39:48Z</time>
      </trkpt>
      <trkpt lat="42.44329" lon="0.06563">
        <ele>603.6</ele>
        <time>2016-07-31T07:39:50Z</time>
      </trkpt>
      <trkpt lat="42.4433" lon="0.06558">
        <ele>603.9</ele>
        <time>2016-07-31T07:39:52Z</time>
      </trkpt>
      <trkpt lat="42.44333" lon="0.06554">
        <ele>604.1</ele>
        <time>2016-07-31T07:39:54Z</time>
      </trkpt>
      <trkpt lat="42.44337" lon="0.0655">
        <ele>604.2</ele>
        <time>2016-07-31T07:39:56Z</time>
      </trkpt>
      <trkpt lat="42.44339" lon="0.06548">
        <ele>604.1</ele>
        <time>2016-07-31T07:39:57Z</time>
      </trkpt>
      <trkpt lat="42.44342" lon="0.06547">
        <ele>603.9</ele>
        <time>2016-07-31T07:39:58Z</time>
      </trkpt>
      <trkpt lat="42.44347" lon="0.06546">
        <ele>603.7</ele>
        <time>2016-07-31T07:40:00Z</time>
      </trkpt>
      <trkpt lat="42.4435" lon="0.06545">
        <ele>603.6</ele>
        <time>2016-07-31T07:40:01Z</time>
      </trkpt>
      <trkpt lat="42.44353" lon="0.06543">
        <ele>603.5</ele>
        <time>2016-07-31T07:40:02Z</time>
      </trkpt>
      <trkpt lat="42.44357" lon="0.06541">
        <ele>603.4</ele>
        <time>2016-07-31T07:40:04Z</time>
      </trkpt>
      <trkpt lat="42.44361" lon="0.06538">
        <ele>603.5</ele>
        <time>2016-07-31T07:40:06Z</time>
      </trkpt>
      <trkpt lat="42.44365" lon="0.06536">
        <ele>603.7</ele>
        <time>2016-07-31T07:40:08Z</time>
      </trkpt>
      <trkpt lat="42.44365" lon="0.06531">
        <ele>604.4</ele>
        <time>2016-07-31T07:40:11Z</time>
      </trkpt>
      <trkpt lat="42.44362" lon="0.06528">
        <ele>604.9</ele>
        <time>2016-07-31T07:40:13Z</time>
      </trkpt>
      <trkpt lat="42.4436" lon="0.06526">
        <ele>605.4</ele>
        <time>2016-07-31T07:40:16Z</time>
      </trkpt>
      <trkpt lat="42.44363" lon="0.06524">
        <ele>605.5</ele>
        <time>2016-07-31T07:40:37Z</time>
      </trkpt>
      <trkpt lat="42.44369" lon="0.06528">
        <ele>604.6</ele>
        <time>2016-07-31T07:40:39Z</time>
      </trkpt>
      <trkpt lat="42.44372" lon="0.06531">
        <ele>603.9</ele>
        <time>2016-07-31T07:40:40Z</time>
      </trkpt>
      <trkpt lat="42.44375" lon="0.06534">
        <ele>603.1</ele>
        <time>2016-07-31T07:40:41Z</time>
      </trkpt>
      <trkpt lat="42.44379" lon="0.06538">
        <ele>602.2</ele>
        <time>2016-07-31T07:40:42Z</time>
      </trkpt>
      <trkpt lat="42.44383" lon="0.06541">
        <ele>601.4</ele>
        <time>2016-07-31T07:40:43Z</time>
      </trkpt>
      <trkpt lat="42.44385" lon="0.06543">
        <ele>600.8</ele>
        <time>2016-07-31T07:40:44Z</time>
      </trkpt>
      <trkpt lat="42.44389" lon="0.06546">
        <ele>600.1</ele>
        <time>2016-07-31T07:40:46Z</time>
      </trkpt>
      <trkpt lat="42.44393" lon="0.0655">
        <ele>599.6</ele>
        <time>2016-07-31T07:40:48Z</time>
      </trkpt>
      <trkpt lat="42.44396" lon="0.06556">
        <ele>598.9</ele>
        <time>2016-07-31T07:40:50Z</time>
      </trkpt>
      <trkpt lat="42.44398" lon="0.06559">
        <ele>598.5</ele>
        <time>2016-07-31T07:40:51Z</time>
      </trkpt>
      <trkpt lat="42.44399" lon="0.06563">
        <ele>598.1</ele>
        <time>2016-07-31T07:40:52Z</time>
      </trkpt>
      <trkpt lat="42.44401" lon="0.06566">
        <ele>597.7</ele>
        <time>2016-07-31T07:40:53Z</time>
      </trkpt>
      <trkpt lat="42.44403" lon="0.0657">
        <ele>597.3</ele>
        <time>2016-07-31T07:40:54Z</time>
      </trkpt>
      <trkpt lat="42.44405" lon="0.06573">
        <ele>596.9</ele>
        <time>2016-07-31T07:40:55Z</time>
      </trkpt>
      <trkpt lat="42.44407" lon="0.06577">
        <ele>596.5</ele>
        <time>2016-07-31T07:40:56Z</time>
      </trkpt>
      <trkpt lat="42.44409" lon="0.0658">
        <ele>596.2</ele>
        <time>2016-07-31T07:40:57Z</time>
      </trkpt>
      <trkpt lat="42.4441" lon="0.06584">
        <ele>595.8</ele>
        <time>2016-07-31T07:40:58Z</time>
      </trkpt>
      <trkpt lat="42.44412" lon="0.06588">
        <ele>595.4</ele>
        <time>2016-07-31T07:40:59Z</time>
      </trkpt>
      <trkpt lat="42.44414" lon="0.06591">
        <ele>595.1</ele>
        <time>2016-07-31T07:41:00Z</time>
      </trkpt>
      <trkpt lat="42.44416" lon="0.06595">
        <ele>594.7</ele>
        <time>2016-07-31T07:41:01Z</time>
      </trkpt>
      <trkpt lat="42.44417" lon="0.06598">
        <ele>594.4</ele>
        <time>2016-07-31T07:41:02Z</time>
      </trkpt>
      <trkpt lat="42.44419" lon="0.06601">
        <ele>594.1</ele>
        <time>2016-07-31T07:41:03Z</time>
      </trkpt>
      <trkpt lat="42.44421" lon="0.06605">
        <ele>593.8</ele>
        <time>2016-07-31T07:41:04Z</time>
      </trkpt>
      <trkpt lat="42.44423" lon="0.06608">
        <ele>593.4</ele>
        <time>2016-07-31T07:41:05Z</time>
      </trkpt>
      <trkpt lat="42.44425" lon="0.06611">
        <ele>593.1</ele>
        <time>2016-07-31T07:41:06Z</time>
      </trkpt>
      <trkpt lat="42.44426" lon="0.06614">
        <ele>592.9</ele>
        <time>2016-07-31T07:41:07Z</time>
      </trkpt>
      <trkpt lat="42.44429" lon="0.0662">
        <ele>592.4</ele>
        <time>2016-07-31T07:41:09Z</time>
      </trkpt>
      <trkpt lat="42.44431" lon="0.06624">
        <ele>592</ele>
        <time>2016-07-31T07:41:11Z</time>
      </trkpt>
      <trkpt lat="42.44434" lon="0.06627">
        <ele>591.8</ele>
        <time>2016-07-31T07:41:13Z</time>
      </trkpt>
      <trkpt lat="42.44437" lon="0.06626">
        <ele>591.5</ele>
        <time>2016-07-31T07:41:19Z</time>
      </trkpt>
      <trkpt lat="42.4444" lon="0.06627">
        <ele>591.4</ele>
        <time>2016-07-31T07:41:21Z</time>
      </trkpt>
      <trkpt lat="42.44437" lon="0.06627">
        <ele>591.6</ele>
        <time>2016-07-31T07:41:31Z</time>
      </trkpt>
      <trkpt lat="42.44438" lon="0.06623">
        <ele>591.5</ele>
        <time>2016-07-31T07:41:58Z</time>
      </trkpt>
      <trkpt lat="42.44441" lon="0.06624">
        <ele>591.3</ele>
        <time>2016-07-31T07:42:01Z</time>
      </trkpt>
      <trkpt lat="42.44444" lon="0.06626">
        <ele>591.1</ele>
        <time>2016-07-31T07:42:03Z</time>
      </trkpt>
      <trkpt lat="42.44446" lon="0.06628">
        <ele>591</ele>
        <time>2016-07-31T07:42:05Z</time>
      </trkpt>
      <trkpt lat="42.4445" lon="0.06631">
        <ele>590.8</ele>
        <time>2016-07-31T07:42:07Z</time>
      </trkpt>
      <trkpt lat="42.44455" lon="0.06627">
        <ele>590.4</ele>
        <time>2016-07-31T07:42:09Z</time>
      </trkpt>
      <trkpt lat="42.44457" lon="0.06624">
        <ele>590.2</ele>
        <time>2016-07-31T07:42:10Z</time>
      </trkpt>
      <trkpt lat="42.44459" lon="0.0662">
        <ele>590.3</ele>
        <time>2016-07-31T07:42:11Z</time>
      </trkpt>
      <trkpt lat="42.44462" lon="0.06616">
        <ele>590.9</ele>
        <time>2016-07-31T07:42:12Z</time>
      </trkpt>
      <trkpt lat="42.44464" lon="0.06611">
        <ele>591.4</ele>
        <time>2016-07-31T07:42:13Z</time>
      </trkpt>
      <trkpt lat="42.44467" lon="0.06606">
        <ele>591.9</ele>
        <time>2016-07-31T07:42:14Z</time>
      </trkpt>
      <trkpt lat="42.44469" lon="0.06599">
        <ele>592.3</ele>
        <time>2016-07-31T07:42:15Z</time>
      </trkpt>
      <trkpt lat="42.44472" lon="0.06594">
        <ele>592.7</ele>
        <time>2016-07-31T07:42:16Z</time>
      </trkpt>
      <trkpt lat="42.44476" lon="0.06589">
        <ele>593.1</ele>
        <time>2016-07-31T07:42:17Z</time>
      </trkpt>
      <trkpt lat="42.44479" lon="0.06584">
        <ele>593.4</ele>
        <time>2016-07-31T07:42:18Z</time>
      </trkpt>
      <trkpt lat="42.44482" lon="0.06579">
        <ele>593.5</ele>
        <time>2016-07-31T07:42:19Z</time>
      </trkpt>
      <trkpt lat="42.44485" lon="0.06573">
        <ele>593.6</ele>
        <time>2016-07-31T07:42:20Z</time>
      </trkpt>
      <trkpt lat="42.44489" lon="0.06567">
        <ele>593.6</ele>
        <time>2016-07-31T07:42:21Z</time>
      </trkpt>
      <trkpt lat="42.44493" lon="0.06562">
        <ele>593.5</ele>
        <time>2016-07-31T07:42:22Z</time>
      </trkpt>
      <trkpt lat="42.44496" lon="0.06556">
        <ele>593.4</ele>
        <time>2016-07-31T07:42:23Z</time>
      </trkpt>
      <trkpt lat="42.445" lon="0.06551">
        <ele>593.1</ele>
        <time>2016-07-31T07:42:24Z</time>
      </trkpt>
      <trkpt lat="42.44504" lon="0.06545">
        <ele>592.7</ele>
        <time>2016-07-31T07:42:25Z</time>
      </trkpt>
      <trkpt lat="42.44507" lon="0.06539">
        <ele>592.5</ele>
        <time>2016-07-31T07:42:26Z</time>
      </trkpt>
      <trkpt lat="42.44511" lon="0.06533">
        <ele>592.7</ele>
        <time>2016-07-31T07:42:27Z</time>
      </trkpt>
      <trkpt lat="42.44515" lon="0.06528">
        <ele>592.9</ele>
        <time>2016-07-31T07:42:28Z</time>
      </trkpt>
      <trkpt lat="42.44519" lon="0.06522">
        <ele>593</ele>
        <time>2016-07-31T07:42:29Z</time>
      </trkpt>
      <trkpt lat="42.44523" lon="0.06516">
        <ele>593.1</ele>
        <time>2016-07-31T07:42:30Z</time>
      </trkpt>
      <trkpt lat="42.44526" lon="0.0651">
        <ele>593.2</ele>
        <time>2016-07-31T07:42:31Z</time>
      </trkpt>
      <trkpt lat="42.4453" lon="0.06504">
        <ele>593.3</ele>
        <time>2016-07-31T07:42:32Z</time>
      </trkpt>
      <trkpt lat="42.44534" lon="0.06499">
        <ele>593.3</ele>
        <time>2016-07-31T07:42:33Z</time>
      </trkpt>
      <trkpt lat="42.44538" lon="0.06493">
        <ele>593.3</ele>
        <time>2016-07-31T07:42:34Z</time>
      </trkpt>
      <trkpt lat="42.44542" lon="0.06487">
        <ele>593.3</ele>
        <time>2016-07-31T07:42:35Z</time>
      </trkpt>
      <trkpt lat="42.44546" lon="0.06481">
        <ele>593.5</ele>
        <time>2016-07-31T07:42:36Z</time>
      </trkpt>
      <trkpt lat="42.44549" lon="0.06476">
        <ele>593.6</ele>
        <time>2016-07-31T07:42:37Z</time>
      </trkpt>
      <trkpt lat="42.44553" lon="0.0647">
        <ele>593.7</ele>
        <time>2016-07-31T07:42:38Z</time>
      </trkpt>
      <trkpt lat="42.44557" lon="0.06464">
        <ele>593.7</ele>
        <time>2016-07-31T07:42:39Z</time>
      </trkpt>
      <trkpt lat="42.4456" lon="0.06459">
        <ele>593.8</ele>
        <time>2016-07-31T07:42:40Z</time>
      </trkpt>
      <trkpt lat="42.44564" lon="0.06453">
        <ele>593.8</ele>
        <time>2016-07-31T07:42:41Z</time>
      </trkpt>
      <trkpt lat="42.44567" lon="0.06447">
        <ele>593.9</ele>
        <time>2016-07-31T07:42:42Z</time>
      </trkpt>
      <trkpt lat="42.44571" lon="0.06442">
        <ele>594</ele>
        <time>2016-07-31T07:42:43Z</time>
      </trkpt>
      <trkpt lat="42.44574" lon="0.06436">
        <ele>594</ele>
        <time>2016-07-31T07:42:44Z</time>
      </trkpt>
      <trkpt lat="42.44577" lon="0.06431">
        <ele>594</ele>
        <time>2016-07-31T07:42:45Z</time>
      </trkpt>
      <trkpt lat="42.44582" lon="0.06426">
        <ele>593.9</ele>
        <time>2016-07-31T07:42:46Z</time>
      </trkpt>
      <trkpt lat="42.44585" lon="0.0642">
        <ele>593.9</ele>
        <time>2016-07-31T07:42:47Z</time>
      </trkpt>
      <trkpt lat="42.44589" lon="0.06415">
        <ele>593.8</ele>
        <time>2016-07-31T07:42:48Z</time>
      </trkpt>
      <trkpt lat="42.44592" lon="0.06409">
        <ele>593.7</ele>
        <time>2016-07-31T07:42:49Z</time>
      </trkpt>
      <trkpt lat="42.44596" lon="0.06404">
        <ele>593.6</ele>
        <time>2016-07-31T07:42:50Z</time>
      </trkpt>
      <trkpt lat="42.446" lon="0.06398">
        <ele>593.5</ele>
        <time>2016-07-31T07:42:51Z</time>
      </trkpt>
      <trkpt lat="42.44603" lon="0.06393">
        <ele>593.3</ele>
        <time>2016-07-31T07:42:52Z</time>
      </trkpt>
      <trkpt lat="42.44606" lon="0.06388">
        <ele>593.1</ele>
        <time>2016-07-31T07:42:53Z</time>
      </trkpt>
      <trkpt lat="42.4461" lon="0.06383">
        <ele>593</ele>
        <time>2016-07-31T07:42:54Z</time>
      </trkpt>
      <trkpt lat="42.44613" lon="0.06377">
        <ele>592.7</ele>
        <time>2016-07-31T07:42:55Z</time>
      </trkpt>
      <trkpt lat="42.44616" lon="0.06372">
        <ele>592.6</ele>
        <time>2016-07-31T07:42:56Z</time>
      </trkpt>
      <trkpt lat="42.44619" lon="0.06367">
        <ele>592.6</ele>
        <time>2016-07-31T07:42:57Z</time>
      </trkpt>
      <trkpt lat="42.44622" lon="0.06362">
        <ele>592.5</ele>
        <time>2016-07-31T07:42:58Z</time>
      </trkpt>
      <trkpt lat="42.44626" lon="0.06357">
        <ele>592.5</ele>
        <time>2016-07-31T07:42:59Z</time>
      </trkpt>
      <trkpt lat="42.44629" lon="0.06351">
        <ele>592.8</ele>
        <time>2016-07-31T07:43:00Z</time>
      </trkpt>
      <trkpt lat="42.44633" lon="0.06346">
        <ele>593.1</ele>
        <time>2016-07-31T07:43:01Z</time>
      </trkpt>
      <trkpt lat="42.44636" lon="0.06341">
        <ele>593.4</ele>
        <time>2016-07-31T07:43:02Z</time>
      </trkpt>
      <trkpt lat="42.44639" lon="0.06336">
        <ele>593.7</ele>
        <time>2016-07-31T07:43:03Z</time>
      </trkpt>
      <trkpt lat="42.44642" lon="0.06331">
        <ele>594</ele>
        <time>2016-07-31T07:43:04Z</time>
      </trkpt>
      <trkpt lat="42.44646" lon="0.06326">
        <ele>594.3</ele>
        <time>2016-07-31T07:43:05Z</time>
      </trkpt>
      <trkpt lat="42.44649" lon="0.06321">
        <ele>594.5</ele>
        <time>2016-07-31T07:43:06Z</time>
      </trkpt>
      <trkpt lat="42.44652" lon="0.06316">
        <ele>594.8</ele>
        <time>2016-07-31T07:43:07Z</time>
      </trkpt>
      <trkpt lat="42.44655" lon="0.06311">
        <ele>595.1</ele>
        <time>2016-07-31T07:43:08Z</time>
      </trkpt>
      <trkpt lat="42.44658" lon="0.06306">
        <ele>595.3</ele>
        <time>2016-07-31T07:43:09Z</time>
      </trkpt>
      <trkpt lat="42.44662" lon="0.063">
        <ele>595.6</ele>
        <time>2016-07-31T07:43:10Z</time>
      </trkpt>
      <trkpt lat="42.44665" lon="0.06296">
        <ele>595.9</ele>
        <time>2016-07-31T07:43:11Z</time>
      </trkpt>
      <trkpt lat="42.44668" lon="0.06291">
        <ele>596.1</ele>
        <time>2016-07-31T07:43:12Z</time>
      </trkpt>
      <trkpt lat="42.44671" lon="0.06286">
        <ele>596.3</ele>
        <time>2016-07-31T07:43:13Z</time>
      </trkpt>
      <trkpt lat="42.44675" lon="0.06281">
        <ele>596.4</ele>
        <time>2016-07-31T07:43:14Z</time>
      </trkpt>
      <trkpt lat="42.44677" lon="0.06275">
        <ele>596.6</ele>
        <time>2016-07-31T07:43:15Z</time>
      </trkpt>
      <trkpt lat="42.44681" lon="0.0627">
        <ele>596.8</ele>
        <time>2016-07-31T07:43:16Z</time>
      </trkpt>
      <trkpt lat="42.44684" lon="0.06265">
        <ele>596.9</ele>
        <time>2016-07-31T07:43:17Z</time>
      </trkpt>
      <trkpt lat="42.44687" lon="0.0626">
        <ele>597.1</ele>
        <time>2016-07-31T07:43:18Z</time>
      </trkpt>
      <trkpt lat="42.4469" lon="0.06255">
        <ele>597.2</ele>
        <time>2016-07-31T07:43:19Z</time>
      </trkpt>
      <trkpt lat="42.44694" lon="0.0625">
        <ele>597.4</ele>
        <time>2016-07-31T07:43:20Z</time>
      </trkpt>
      <trkpt lat="42.44697" lon="0.06245">
        <ele>597.5</ele>
        <time>2016-07-31T07:43:21Z</time>
      </trkpt>
      <trkpt lat="42.447" lon="0.0624">
        <ele>597.6</ele>
        <time>2016-07-31T07:43:22Z</time>
      </trkpt>
      <trkpt lat="42.44703" lon="0.06235">
        <ele>597.8</ele>
        <time>2016-07-31T07:43:23Z</time>
      </trkpt>
      <trkpt lat="42.44706" lon="0.06231">
        <ele>597.9</ele>
        <time>2016-07-31T07:43:24Z</time>
      </trkpt>
      <trkpt lat="42.4471" lon="0.06226">
        <ele>598.1</ele>
        <time>2016-07-31T07:43:25Z</time>
      </trkpt>
      <trkpt lat="42.44713" lon="0.06221">
        <ele>598.2</ele>
        <time>2016-07-31T07:43:26Z</time>
      </trkpt>
      <trkpt lat="42.44716" lon="0.06216">
        <ele>598.4</ele>
        <time>2016-07-31T07:43:27Z</time>
      </trkpt>
      <trkpt lat="42.44719" lon="0.0621">
        <ele>598.5</ele>
        <time>2016-07-31T07:43:28Z</time>
      </trkpt>
      <trkpt lat="42.44722" lon="0.06205">
        <ele>598.7</ele>
        <time>2016-07-31T07:43:29Z</time>
      </trkpt>
      <trkpt lat="42.44725" lon="0.06199">
        <ele>598.9</ele>
        <time>2016-07-31T07:43:30Z</time>
      </trkpt>
      <trkpt lat="42.44728" lon="0.06195">
        <ele>599</ele>
        <time>2016-07-31T07:43:31Z</time>
      </trkpt>
      <trkpt lat="42.44732" lon="0.0619">
        <ele>599.2</ele>
        <time>2016-07-31T07:43:32Z</time>
      </trkpt>
      <trkpt lat="42.44735" lon="0.06185">
        <ele>599.4</ele>
        <time>2016-07-31T07:43:33Z</time>
      </trkpt>
      <trkpt lat="42.44738" lon="0.0618">
        <ele>599.5</ele>
        <time>2016-07-31T07:43:34Z</time>
      </trkpt>
      <trkpt lat="42.44741" lon="0.06175">
        <ele>599.7</ele>
        <time>2016-07-31T07:43:35Z</time>
      </trkpt>
      <trkpt lat="42.44744" lon="0.06169">
        <ele>599.8</ele>
        <time>2016-07-31T07:43:36Z</time>
      </trkpt>
      <trkpt lat="42.44748" lon="0.06164">
        <ele>599.9</ele>
        <time>2016-07-31T07:43:37Z</time>
      </trkpt>
      <trkpt lat="42.44751" lon="0.06158">
        <ele>600</ele>
        <time>2016-07-31T07:43:38Z</time>
      </trkpt>
      <trkpt lat="42.44755" lon="0.06153">
        <ele>600.2</ele>
        <time>2016-07-31T07:43:39Z</time>
      </trkpt>
      <trkpt lat="42.44758" lon="0.06147">
        <ele>600.2</ele>
        <time>2016-07-31T07:43:40Z</time>
      </trkpt>
      <trkpt lat="42.44762" lon="0.06141">
        <ele>600.3</ele>
        <time>2016-07-31T07:43:41Z</time>
      </trkpt>
      <trkpt lat="42.44765" lon="0.06137">
        <ele>600.4</ele>
        <time>2016-07-31T07:43:42Z</time>
      </trkpt>
      <trkpt lat="42.44769" lon="0.06131">
        <ele>600.5</ele>
        <time>2016-07-31T07:43:43Z</time>
      </trkpt>
      <trkpt lat="42.44772" lon="0.06124">
        <ele>600.5</ele>
        <time>2016-07-31T07:43:44Z</time>
      </trkpt>
      <trkpt lat="42.44775" lon="0.06119">
        <ele>600.7</ele>
        <time>2016-07-31T07:43:45Z</time>
      </trkpt>
      <trkpt lat="42.44779" lon="0.06115">
        <ele>600.8</ele>
        <time>2016-07-31T07:43:46Z</time>
      </trkpt>
      <trkpt lat="42.44782" lon="0.06109">
        <ele>601</ele>
        <time>2016-07-31T07:43:47Z</time>
      </trkpt>
      <trkpt lat="42.44786" lon="0.06102">
        <ele>601.1</ele>
        <time>2016-07-31T07:43:48Z</time>
      </trkpt>
      <trkpt lat="42.44789" lon="0.06097">
        <ele>601.3</ele>
        <time>2016-07-31T07:43:49Z</time>
      </trkpt>
      <trkpt lat="42.44792" lon="0.06092">
        <ele>601.4</ele>
        <time>2016-07-31T07:43:50Z</time>
      </trkpt>
      <trkpt lat="42.44795" lon="0.06087">
        <ele>601.5</ele>
        <time>2016-07-31T07:43:51Z</time>
      </trkpt>
      <trkpt lat="42.44799" lon="0.06082">
        <ele>601.7</ele>
        <time>2016-07-31T07:43:52Z</time>
      </trkpt>
      <trkpt lat="42.44802" lon="0.06076">
        <ele>601.8</ele>
        <time>2016-07-31T07:43:53Z</time>
      </trkpt>
      <trkpt lat="42.44806" lon="0.06071">
        <ele>601.9</ele>
        <time>2016-07-31T07:43:54Z</time>
      </trkpt>
      <trkpt lat="42.44809" lon="0.06066">
        <ele>602</ele>
        <time>2016-07-31T07:43:55Z</time>
      </trkpt>
      <trkpt lat="42.44813" lon="0.0606">
        <ele>602.1</ele>
        <time>2016-07-31T07:43:56Z</time>
      </trkpt>
      <trkpt lat="42.44816" lon="0.06054">
        <ele>602.2</ele>
        <time>2016-07-31T07:43:57Z</time>
      </trkpt>
      <trkpt lat="42.4482" lon="0.06049">
        <ele>602.3</ele>
        <time>2016-07-31T07:43:58Z</time>
      </trkpt>
      <trkpt lat="42.44823" lon="0.06044">
        <ele>602.4</ele>
        <time>2016-07-31T07:43:59Z</time>
      </trkpt>
      <trkpt lat="42.44827" lon="0.06038">
        <ele>602.3</ele>
        <time>2016-07-31T07:44:00Z</time>
      </trkpt>
      <trkpt lat="42.4483" lon="0.06033">
        <ele>602.2</ele>
        <time>2016-07-31T07:44:01Z</time>
      </trkpt>
      <trkpt lat="42.44834" lon="0.06028">
        <ele>602.1</ele>
        <time>2016-07-31T07:44:02Z</time>
      </trkpt>
      <trkpt lat="42.44837" lon="0.06022">
        <ele>601.9</ele>
        <time>2016-07-31T07:44:03Z</time>
      </trkpt>
      <trkpt lat="42.44841" lon="0.06016">
        <ele>601.8</ele>
        <time>2016-07-31T07:44:04Z</time>
      </trkpt>
      <trkpt lat="42.44845" lon="0.0601">
        <ele>601.6</ele>
        <time>2016-07-31T07:44:05Z</time>
      </trkpt>
      <trkpt lat="42.44848" lon="0.06005">
        <ele>601.5</ele>
        <time>2016-07-31T07:44:06Z</time>
      </trkpt>
      <trkpt lat="42.44852" lon="0.05998">
        <ele>601.3</ele>
        <time>2016-07-31T07:44:07Z</time>
      </trkpt>
      <trkpt lat="42.44855" lon="0.05993">
        <ele>601.1</ele>
        <time>2016-07-31T07:44:08Z</time>
      </trkpt>
      <trkpt lat="42.44858" lon="0.05987">
        <ele>601</ele>
        <time>2016-07-31T07:44:09Z</time>
      </trkpt>
      <trkpt lat="42.44862" lon="0.05982">
        <ele>600.8</ele>
        <time>2016-07-31T07:44:10Z</time>
      </trkpt>
      <trkpt lat="42.44866" lon="0.05976">
        <ele>600.6</ele>
        <time>2016-07-31T07:44:11Z</time>
      </trkpt>
      <trkpt lat="42.4487" lon="0.0597">
        <ele>600.4</ele>
        <time>2016-07-31T07:44:12Z</time>
      </trkpt>
      <trkpt lat="42.44873" lon="0.05965">
        <ele>600.2</ele>
        <time>2016-07-31T07:44:13Z</time>
      </trkpt>
      <trkpt lat="42.44878" lon="0.05959">
        <ele>600.2</ele>
        <time>2016-07-31T07:44:14Z</time>
      </trkpt>
      <trkpt lat="42.44881" lon="0.05954">
        <ele>600.3</ele>
        <time>2016-07-31T07:44:15Z</time>
      </trkpt>
      <trkpt lat="42.44885" lon="0.05948">
        <ele>600.4</ele>
        <time>2016-07-31T07:44:16Z</time>
      </trkpt>
      <trkpt lat="42.44889" lon="0.05942">
        <ele>600.6</ele>
        <time>2016-07-31T07:44:17Z</time>
      </trkpt>
      <trkpt lat="42.44893" lon="0.05937">
        <ele>600.7</ele>
        <time>2016-07-31T07:44:18Z</time>
      </trkpt>
      <trkpt lat="42.44896" lon="0.05929">
        <ele>600.7</ele>
        <time>2016-07-31T07:44:19Z</time>
      </trkpt>
      <trkpt lat="42.44899" lon="0.05925">
        <ele>600.8</ele>
        <time>2016-07-31T07:44:20Z</time>
      </trkpt>
      <trkpt lat="42.44903" lon="0.05919">
        <ele>600.9</ele>
        <time>2016-07-31T07:44:21Z</time>
      </trkpt>
      <trkpt lat="42.44907" lon="0.05914">
        <ele>601</ele>
        <time>2016-07-31T07:44:22Z</time>
      </trkpt>
      <trkpt lat="42.4491" lon="0.05909">
        <ele>601</ele>
        <time>2016-07-31T07:44:23Z</time>
      </trkpt>
      <trkpt lat="42.44914" lon="0.05904">
        <ele>601.1</ele>
        <time>2016-07-31T07:44:24Z</time>
      </trkpt>
      <trkpt lat="42.44919" lon="0.05897">
        <ele>601.1</ele>
        <time>2016-07-31T07:44:25Z</time>
      </trkpt>
      <trkpt lat="42.44922" lon="0.0589">
        <ele>601.1</ele>
        <time>2016-07-31T07:44:26Z</time>
      </trkpt>
      <trkpt lat="42.44925" lon="0.05885">
        <ele>601.1</ele>
        <time>2016-07-31T07:44:27Z</time>
      </trkpt>
      <trkpt lat="42.44929" lon="0.05881">
        <ele>601.1</ele>
        <time>2016-07-31T07:44:28Z</time>
      </trkpt>
      <trkpt lat="42.44933" lon="0.05876">
        <ele>601.1</ele>
        <time>2016-07-31T07:44:29Z</time>
      </trkpt>
      <trkpt lat="42.44936" lon="0.05871">
        <ele>601.1</ele>
        <time>2016-07-31T07:44:30Z</time>
      </trkpt>
      <trkpt lat="42.4494" lon="0.05866">
        <ele>601.2</ele>
        <time>2016-07-31T07:44:31Z</time>
      </trkpt>
      <trkpt lat="42.44943" lon="0.05861">
        <ele>601.2</ele>
        <time>2016-07-31T07:44:32Z</time>
      </trkpt>
      <trkpt lat="42.44945" lon="0.05856">
        <ele>601.1</ele>
        <time>2016-07-31T07:44:33Z</time>
      </trkpt>
      <trkpt lat="42.44948" lon="0.05851">
        <ele>601.1</ele>
        <time>2016-07-31T07:44:34Z</time>
      </trkpt>
      <trkpt lat="42.44952" lon="0.05845">
        <ele>601.1</ele>
        <time>2016-07-31T07:44:35Z</time>
      </trkpt>
      <trkpt lat="42.44956" lon="0.0584">
        <ele>601.1</ele>
        <time>2016-07-31T07:44:36Z</time>
      </trkpt>
      <trkpt lat="42.44961" lon="0.05833">
        <ele>601.4</ele>
        <time>2016-07-31T07:44:37Z</time>
      </trkpt>
      <trkpt lat="42.44965" lon="0.05827">
        <ele>601.7</ele>
        <time>2016-07-31T07:44:38Z</time>
      </trkpt>
      <trkpt lat="42.44969" lon="0.05821">
        <ele>602</ele>
        <time>2016-07-31T07:44:39Z</time>
      </trkpt>
      <trkpt lat="42.44972" lon="0.05816">
        <ele>602.2</ele>
        <time>2016-07-31T07:44:40Z</time>
      </trkpt>
      <trkpt lat="42.44976" lon="0.05812">
        <ele>602.5</ele>
        <time>2016-07-31T07:44:41Z</time>
      </trkpt>
      <trkpt lat="42.4498" lon="0.05806">
        <ele>602.6</ele>
        <time>2016-07-31T07:44:42Z</time>
      </trkpt>
      <trkpt lat="42.44984" lon="0.05802">
        <ele>602.8</ele>
        <time>2016-07-31T07:44:43Z</time>
      </trkpt>
      <trkpt lat="42.44989" lon="0.05798">
        <ele>602.9</ele>
        <time>2016-07-31T07:44:44Z</time>
      </trkpt>
      <trkpt lat="42.44992" lon="0.05793">
        <ele>602.9</ele>
        <time>2016-07-31T07:44:45Z</time>
      </trkpt>
      <trkpt lat="42.44996" lon="0.05785">
        <ele>603</ele>
        <time>2016-07-31T07:44:46Z</time>
      </trkpt>
      <trkpt lat="42.45" lon="0.0578">
        <ele>603.2</ele>
        <time>2016-07-31T07:44:47Z</time>
      </trkpt>
      <trkpt lat="42.45004" lon="0.05776">
        <ele>603.4</ele>
        <time>2016-07-31T07:44:48Z</time>
      </trkpt>
      <trkpt lat="42.45007" lon="0.05773">
        <ele>603.4</ele>
        <time>2016-07-31T07:44:49Z</time>
      </trkpt>
      <trkpt lat="42.45011" lon="0.05769">
        <ele>603.5</ele>
        <time>2016-07-31T07:44:50Z</time>
      </trkpt>
      <trkpt lat="42.45015" lon="0.05765">
        <ele>603.5</ele>
        <time>2016-07-31T07:44:51Z</time>
      </trkpt>
      <trkpt lat="42.45019" lon="0.05762">
        <ele>603.6</ele>
        <time>2016-07-31T07:44:52Z</time>
      </trkpt>
      <trkpt lat="42.45023" lon="0.05756">
        <ele>603.4</ele>
        <time>2016-07-31T07:44:53Z</time>
      </trkpt>
      <trkpt lat="42.45026" lon="0.0575">
        <ele>603.1</ele>
        <time>2016-07-31T07:44:54Z</time>
      </trkpt>
      <trkpt lat="42.45028" lon="0.05744">
        <ele>602.8</ele>
        <time>2016-07-31T07:44:55Z</time>
      </trkpt>
      <trkpt lat="42.45028" lon="0.05738">
        <ele>602.4</ele>
        <time>2016-07-31T07:44:56Z</time>
      </trkpt>
      <trkpt lat="42.45025" lon="0.05731">
        <ele>602</ele>
        <time>2016-07-31T07:44:57Z</time>
      </trkpt>
      <trkpt lat="42.45023" lon="0.05724">
        <ele>601.6</ele>
        <time>2016-07-31T07:44:58Z</time>
      </trkpt>
      <trkpt lat="42.45021" lon="0.05717">
        <ele>601.2</ele>
        <time>2016-07-31T07:44:59Z</time>
      </trkpt>
      <trkpt lat="42.45019" lon="0.0571">
        <ele>600.9</ele>
        <time>2016-07-31T07:45:00Z</time>
      </trkpt>
      <trkpt lat="42.45018" lon="0.05703">
        <ele>601.8</ele>
        <time>2016-07-31T07:45:01Z</time>
      </trkpt>
      <trkpt lat="42.45016" lon="0.05697">
        <ele>603.1</ele>
        <time>2016-07-31T07:45:02Z</time>
      </trkpt>
      <trkpt lat="42.45013" lon="0.0569">
        <ele>604.6</ele>
        <time>2016-07-31T07:45:03Z</time>
      </trkpt>
      <trkpt lat="42.45009" lon="0.05682">
        <ele>606.3</ele>
        <time>2016-07-31T07:45:04Z</time>
      </trkpt>
      <trkpt lat="42.45007" lon="0.05675">
        <ele>608</ele>
        <time>2016-07-31T07:45:05Z</time>
      </trkpt>
      <trkpt lat="42.45005" lon="0.05667">
        <ele>609.7</ele>
        <time>2016-07-31T07:45:06Z</time>
      </trkpt>
      <trkpt lat="42.45002" lon="0.0566">
        <ele>611.5</ele>
        <time>2016-07-31T07:45:07Z</time>
      </trkpt>
      <trkpt lat="42.44999" lon="0.05653">
        <ele>613.3</ele>
        <time>2016-07-31T07:45:08Z</time>
      </trkpt>
      <trkpt lat="42.44997" lon="0.05646">
        <ele>614.9</ele>
        <time>2016-07-31T07:45:09Z</time>
      </trkpt>
      <trkpt lat="42.44995" lon="0.0564">
        <ele>616.5</ele>
        <time>2016-07-31T07:45:10Z</time>
      </trkpt>
      <trkpt lat="42.44993" lon="0.05634">
        <ele>618</ele>
        <time>2016-07-31T07:45:11Z</time>
      </trkpt>
      <trkpt lat="42.44991" lon="0.05628">
        <ele>619.6</ele>
        <time>2016-07-31T07:45:12Z</time>
      </trkpt>
      <trkpt lat="42.44988" lon="0.05623">
        <ele>621.5</ele>
        <time>2016-07-31T07:45:13Z</time>
      </trkpt>
      <trkpt lat="42.44986" lon="0.05617">
        <ele>623.6</ele>
        <time>2016-07-31T07:45:14Z</time>
      </trkpt>
      <trkpt lat="42.44983" lon="0.05611">
        <ele>625.9</ele>
        <time>2016-07-31T07:45:15Z</time>
      </trkpt>
      <trkpt lat="42.4498" lon="0.05606">
        <ele>627.9</ele>
        <time>2016-07-31T07:45:16Z</time>
      </trkpt>
      <trkpt lat="42.44977" lon="0.05602">
        <ele>629.8</ele>
        <time>2016-07-31T07:45:17Z</time>
      </trkpt>
      <trkpt lat="42.44974" lon="0.05598">
        <ele>631.5</ele>
        <time>2016-07-31T07:45:18Z</time>
      </trkpt>
      <trkpt lat="42.4497" lon="0.05595">
        <ele>633.1</ele>
        <time>2016-07-31T07:45:19Z</time>
      </trkpt>
      <trkpt lat="42.44967" lon="0.05593">
        <ele>634.5</ele>
        <time>2016-07-31T07:45:20Z</time>
      </trkpt>
      <trkpt lat="42.44964" lon="0.0559">
        <ele>635.9</ele>
        <time>2016-07-31T07:45:21Z</time>
      </trkpt>
      <trkpt lat="42.4496" lon="0.05588">
        <ele>637.4</ele>
        <time>2016-07-31T07:45:22Z</time>
      </trkpt>
      <trkpt lat="42.44956" lon="0.05585">
        <ele>638.7</ele>
        <time>2016-07-31T07:45:23Z</time>
      </trkpt>
      <trkpt lat="42.44952" lon="0.05585">
        <ele>639.5</ele>
        <time>2016-07-31T07:45:24Z</time>
      </trkpt>
      <trkpt lat="42.44949" lon="0.05582">
        <ele>640.8</ele>
        <time>2016-07-31T07:45:25Z</time>
      </trkpt>
      <trkpt lat="42.44945" lon="0.05582">
        <ele>641.6</ele>
        <time>2016-07-31T07:45:26Z</time>
      </trkpt>
      <trkpt lat="42.44941" lon="0.05581">
        <ele>642.4</ele>
        <time>2016-07-31T07:45:27Z</time>
      </trkpt>
      <trkpt lat="42.44937" lon="0.05581">
        <ele>643</ele>
        <time>2016-07-31T07:45:28Z</time>
      </trkpt>
      <trkpt lat="42.44934" lon="0.05581">
        <ele>643.5</ele>
        <time>2016-07-31T07:45:29Z</time>
      </trkpt>
      <trkpt lat="42.44931" lon="0.05581">
        <ele>643.9</ele>
        <time>2016-07-31T07:45:30Z</time>
      </trkpt>
      <trkpt lat="42.44927" lon="0.05582">
        <ele>644.3</ele>
        <time>2016-07-31T07:45:31Z</time>
      </trkpt>
      <trkpt lat="42.44924" lon="0.05582">
        <ele>644.6</ele>
        <time>2016-07-31T07:45:32Z</time>
      </trkpt>
      <trkpt lat="42.44921" lon="0.05584">
        <ele>644.7</ele>
        <time>2016-07-31T07:45:33Z</time>
      </trkpt>
      <trkpt lat="42.44917" lon="0.05585">
        <ele>644.9</ele>
        <time>2016-07-31T07:45:34Z</time>
      </trkpt>
      <trkpt lat="42.44914" lon="0.05586">
        <ele>645.1</ele>
        <time>2016-07-31T07:45:35Z</time>
      </trkpt>
      <trkpt lat="42.44911" lon="0.05588">
        <ele>645.2</ele>
        <time>2016-07-31T07:45:36Z</time>
      </trkpt>
      <trkpt lat="42.44908" lon="0.05589">
        <ele>645.3</ele>
        <time>2016-07-31T07:45:37Z</time>
      </trkpt>
      <trkpt lat="42.44904" lon="0.05591">
        <ele>645.5</ele>
        <time>2016-07-31T07:45:38Z</time>
      </trkpt>
      <trkpt lat="42.44901" lon="0.05592">
        <ele>645.7</ele>
        <time>2016-07-31T07:45:39Z</time>
      </trkpt>
      <trkpt lat="42.44898" lon="0.05594">
        <ele>645.8</ele>
        <time>2016-07-31T07:45:40Z</time>
      </trkpt>
      <trkpt lat="42.44895" lon="0.05595">
        <ele>646</ele>
        <time>2016-07-31T07:45:41Z</time>
      </trkpt>
      <trkpt lat="42.44892" lon="0.05597">
        <ele>646.2</ele>
        <time>2016-07-31T07:45:42Z</time>
      </trkpt>
      <trkpt lat="42.44889" lon="0.05598">
        <ele>646.4</ele>
        <time>2016-07-31T07:45:43Z</time>
      </trkpt>
      <trkpt lat="42.44886" lon="0.056">
        <ele>646.5</ele>
        <time>2016-07-31T07:45:44Z</time>
      </trkpt>
      <trkpt lat="42.44883" lon="0.05602">
        <ele>646.6</ele>
        <time>2016-07-31T07:45:45Z</time>
      </trkpt>
      <trkpt lat="42.4488" lon="0.05604">
        <ele>646.6</ele>
        <time>2016-07-31T07:45:46Z</time>
      </trkpt>
      <trkpt lat="42.44877" lon="0.05606">
        <ele>646.6</ele>
        <time>2016-07-31T07:45:47Z</time>
      </trkpt>
      <trkpt lat="42.44874" lon="0.05609">
        <ele>646.4</ele>
        <time>2016-07-31T07:45:48Z</time>
      </trkpt>
      <trkpt lat="42.44872" lon="0.05611">
        <ele>645.3</ele>
        <time>2016-07-31T07:45:49Z</time>
      </trkpt>
      <trkpt lat="42.44869" lon="0.05614">
        <ele>644.2</ele>
        <time>2016-07-31T07:45:50Z</time>
      </trkpt>
      <trkpt lat="42.44866" lon="0.05617">
        <ele>643</ele>
        <time>2016-07-31T07:45:51Z</time>
      </trkpt>
      <trkpt lat="42.44864" lon="0.0562">
        <ele>641.8</ele>
        <time>2016-07-31T07:45:52Z</time>
      </trkpt>
      <trkpt lat="42.44862" lon="0.05623">
        <ele>640.7</ele>
        <time>2016-07-31T07:45:53Z</time>
      </trkpt>
      <trkpt lat="42.4486" lon="0.05627">
        <ele>639.4</ele>
        <time>2016-07-31T07:45:54Z</time>
      </trkpt>
      <trkpt lat="42.44858" lon="0.0563">
        <ele>638.1</ele>
        <time>2016-07-31T07:45:55Z</time>
      </trkpt>
      <trkpt lat="42.44855" lon="0.05633">
        <ele>636.7</ele>
        <time>2016-07-31T07:45:56Z</time>
      </trkpt>
      <trkpt lat="42.44852" lon="0.05636">
        <ele>635.3</ele>
        <time>2016-07-31T07:45:57Z</time>
      </trkpt>
      <trkpt lat="42.4485" lon="0.05639">
        <ele>634</ele>
        <time>2016-07-31T07:45:58Z</time>
      </trkpt>
      <trkpt lat="42.44847" lon="0.05642">
        <ele>632.8</ele>
        <time>2016-07-31T07:45:59Z</time>
      </trkpt>
      <trkpt lat="42.44844" lon="0.05646">
        <ele>631.5</ele>
        <time>2016-07-31T07:46:00Z</time>
      </trkpt>
      <trkpt lat="42.44842" lon="0.05649">
        <ele>630.2</ele>
        <time>2016-07-31T07:46:01Z</time>
      </trkpt>
      <trkpt lat="42.44839" lon="0.05652">
        <ele>629</ele>
        <time>2016-07-31T07:46:02Z</time>
      </trkpt>
      <trkpt lat="42.44836" lon="0.05655">
        <ele>627.8</ele>
        <time>2016-07-31T07:46:03Z</time>
      </trkpt>
      <trkpt lat="42.44833" lon="0.05659">
        <ele>626.7</ele>
        <time>2016-07-31T07:46:04Z</time>
      </trkpt>
      <trkpt lat="42.44831" lon="0.05662">
        <ele>625.5</ele>
        <time>2016-07-31T07:46:05Z</time>
      </trkpt>
      <trkpt lat="42.44828" lon="0.05665">
        <ele>624.4</ele>
        <time>2016-07-31T07:46:06Z</time>
      </trkpt>
      <trkpt lat="42.44825" lon="0.05669">
        <ele>623.3</ele>
        <time>2016-07-31T07:46:07Z</time>
      </trkpt>
      <trkpt lat="42.44822" lon="0.05672">
        <ele>622.3</ele>
        <time>2016-07-31T07:46:08Z</time>
      </trkpt>
      <trkpt lat="42.44819" lon="0.05675">
        <ele>621.3</ele>
        <time>2016-07-31T07:46:09Z</time>
      </trkpt>
      <trkpt lat="42.44816" lon="0.05678">
        <ele>620.4</ele>
        <time>2016-07-31T07:46:10Z</time>
      </trkpt>
      <trkpt lat="42.44813" lon="0.0568">
        <ele>619.5</ele>
        <time>2016-07-31T07:46:11Z</time>
      </trkpt>
      <trkpt lat="42.44809" lon="0.05683">
        <ele>618.7</ele>
        <time>2016-07-31T07:46:12Z</time>
      </trkpt>
      <trkpt lat="42.44805" lon="0.05685">
        <ele>617.9</ele>
        <time>2016-07-31T07:46:13Z</time>
      </trkpt>
      <trkpt lat="42.448" lon="0.05686">
        <ele>617.3</ele>
        <time>2016-07-31T07:46:14Z</time>
      </trkpt>
      <trkpt lat="42.44795" lon="0.05686">
        <ele>616.8</ele>
        <time>2016-07-31T07:46:15Z</time>
      </trkpt>
      <trkpt lat="42.44791" lon="0.05685">
        <ele>616.9</ele>
        <time>2016-07-31T07:46:16Z</time>
      </trkpt>
      <trkpt lat="42.44786" lon="0.05682">
        <ele>618.4</ele>
        <time>2016-07-31T07:46:17Z</time>
      </trkpt>
      <trkpt lat="42.44783" lon="0.05678">
        <ele>619.8</ele>
        <time>2016-07-31T07:46:18Z</time>
      </trkpt>
      <trkpt lat="42.44781" lon="0.05673">
        <ele>620.9</ele>
        <time>2016-07-31T07:46:19Z</time>
      </trkpt>
      <trkpt lat="42.44778" lon="0.05668">
        <ele>622.1</ele>
        <time>2016-07-31T07:46:20Z</time>
      </trkpt>
      <trkpt lat="42.44776" lon="0.05663">
        <ele>623.1</ele>
        <time>2016-07-31T07:46:21Z</time>
      </trkpt>
      <trkpt lat="42.44773" lon="0.05656">
        <ele>624.3</ele>
        <time>2016-07-31T07:46:22Z</time>
      </trkpt>
      <trkpt lat="42.44773" lon="0.05649">
        <ele>625</ele>
        <time>2016-07-31T07:46:23Z</time>
      </trkpt>
      <trkpt lat="42.44773" lon="0.05643">
        <ele>625.6</ele>
        <time>2016-07-31T07:46:24Z</time>
      </trkpt>
      <trkpt lat="42.44773" lon="0.05636">
        <ele>626.3</ele>
        <time>2016-07-31T07:46:25Z</time>
      </trkpt>
      <trkpt lat="42.44773" lon="0.05629">
        <ele>627</ele>
        <time>2016-07-31T07:46:26Z</time>
      </trkpt>
      <trkpt lat="42.44772" lon="0.05624">
        <ele>627.6</ele>
        <time>2016-07-31T07:46:27Z</time>
      </trkpt>
      <trkpt lat="42.44771" lon="0.05619">
        <ele>628.4</ele>
        <time>2016-07-31T07:46:28Z</time>
      </trkpt>
      <trkpt lat="42.44769" lon="0.05613">
        <ele>629.5</ele>
        <time>2016-07-31T07:46:29Z</time>
      </trkpt>
      <trkpt lat="42.44767" lon="0.05608">
        <ele>630.4</ele>
        <time>2016-07-31T07:46:30Z</time>
      </trkpt>
      <trkpt lat="42.44764" lon="0.05602">
        <ele>631.3</ele>
        <time>2016-07-31T07:46:31Z</time>
      </trkpt>
      <trkpt lat="42.44762" lon="0.05598">
        <ele>631.9</ele>
        <time>2016-07-31T07:46:32Z</time>
      </trkpt>
      <trkpt lat="42.44759" lon="0.05593">
        <ele>632.5</ele>
        <time>2016-07-31T07:46:33Z</time>
      </trkpt>
      <trkpt lat="42.44756" lon="0.05589">
        <ele>632.8</ele>
        <time>2016-07-31T07:46:34Z</time>
      </trkpt>
      <trkpt lat="42.44752" lon="0.05585">
        <ele>632.9</ele>
        <time>2016-07-31T07:46:35Z</time>
      </trkpt>
      <trkpt lat="42.44749" lon="0.05581">
        <ele>633.1</ele>
        <time>2016-07-31T07:46:36Z</time>
      </trkpt>
      <trkpt lat="42.44745" lon="0.05577">
        <ele>633.2</ele>
        <time>2016-07-31T07:46:37Z</time>
      </trkpt>
      <trkpt lat="42.44742" lon="0.05574">
        <ele>633</ele>
        <time>2016-07-31T07:46:38Z</time>
      </trkpt>
      <trkpt lat="42.44739" lon="0.05569">
        <ele>633</ele>
        <time>2016-07-31T07:46:39Z</time>
      </trkpt>
      <trkpt lat="42.44736" lon="0.05566">
        <ele>632.8</ele>
        <time>2016-07-31T07:46:40Z</time>
      </trkpt>
      <trkpt lat="42.44732" lon="0.05563">
        <ele>632.5</ele>
        <time>2016-07-31T07:46:41Z</time>
      </trkpt>
      <trkpt lat="42.4473" lon="0.0556">
        <ele>632.3</ele>
        <time>2016-07-31T07:46:42Z</time>
      </trkpt>
      <trkpt lat="42.44729" lon="0.05557">
        <ele>632</ele>
        <time>2016-07-31T07:46:43Z</time>
      </trkpt>
      <trkpt lat="42.44726" lon="0.05554">
        <ele>631.7</ele>
        <time>2016-07-31T07:46:44Z</time>
      </trkpt>
      <trkpt lat="42.44723" lon="0.05549">
        <ele>631.2</ele>
        <time>2016-07-31T07:46:45Z</time>
      </trkpt>
      <trkpt lat="42.44721" lon="0.05546">
        <ele>630.7</ele>
        <time>2016-07-31T07:46:46Z</time>
      </trkpt>
      <trkpt lat="42.44719" lon="0.05542">
        <ele>630.3</ele>
        <time>2016-07-31T07:46:47Z</time>
      </trkpt>
      <trkpt lat="42.44717" lon="0.05538">
        <ele>630.2</ele>
        <time>2016-07-31T07:46:48Z</time>
      </trkpt>
      <trkpt lat="42.44715" lon="0.05534">
        <ele>630.1</ele>
        <time>2016-07-31T07:46:49Z</time>
      </trkpt>
      <trkpt lat="42.44714" lon="0.0553">
        <ele>630</ele>
        <time>2016-07-31T07:46:50Z</time>
      </trkpt>
      <trkpt lat="42.44712" lon="0.05526">
        <ele>630</ele>
        <time>2016-07-31T07:46:51Z</time>
      </trkpt>
      <trkpt lat="42.44711" lon="0.05522">
        <ele>629.9</ele>
        <time>2016-07-31T07:46:52Z</time>
      </trkpt>
      <trkpt lat="42.44709" lon="0.05518">
        <ele>629.9</ele>
        <time>2016-07-31T07:46:53Z</time>
      </trkpt>
      <trkpt lat="42.44707" lon="0.05514">
        <ele>630.4</ele>
        <time>2016-07-31T07:46:54Z</time>
      </trkpt>
      <trkpt lat="42.44706" lon="0.0551">
        <ele>631.2</ele>
        <time>2016-07-31T07:46:55Z</time>
      </trkpt>
      <trkpt lat="42.44704" lon="0.05506">
        <ele>632</ele>
        <time>2016-07-31T07:46:56Z</time>
      </trkpt>
      <trkpt lat="42.44703" lon="0.05503">
        <ele>632.7</ele>
        <time>2016-07-31T07:46:57Z</time>
      </trkpt>
      <trkpt lat="42.44701" lon="0.05499">
        <ele>633.5</ele>
        <time>2016-07-31T07:46:58Z</time>
      </trkpt>
      <trkpt lat="42.44699" lon="0.05496">
        <ele>634.2</ele>
        <time>2016-07-31T07:46:59Z</time>
      </trkpt>
      <trkpt lat="42.44698" lon="0.05493">
        <ele>634.9</ele>
        <time>2016-07-31T07:47:00Z</time>
      </trkpt>
      <trkpt lat="42.44696" lon="0.05489">
        <ele>635.5</ele>
        <time>2016-07-31T07:47:01Z</time>
      </trkpt>
      <trkpt lat="42.44694" lon="0.05484">
        <ele>636.2</ele>
        <time>2016-07-31T07:47:02Z</time>
      </trkpt>
      <trkpt lat="42.44693" lon="0.0548">
        <ele>636.7</ele>
        <time>2016-07-31T07:47:03Z</time>
      </trkpt>
      <trkpt lat="42.44691" lon="0.05476">
        <ele>637.2</ele>
        <time>2016-07-31T07:47:04Z</time>
      </trkpt>
      <trkpt lat="42.44689" lon="0.05472">
        <ele>637.8</ele>
        <time>2016-07-31T07:47:05Z</time>
      </trkpt>
      <trkpt lat="42.44687" lon="0.05468">
        <ele>638.4</ele>
        <time>2016-07-31T07:47:06Z</time>
      </trkpt>
      <trkpt lat="42.44686" lon="0.05465">
        <ele>638.9</ele>
        <time>2016-07-31T07:47:07Z</time>
      </trkpt>
      <trkpt lat="42.44684" lon="0.05461">
        <ele>639.3</ele>
        <time>2016-07-31T07:47:08Z</time>
      </trkpt>
      <trkpt lat="42.44682" lon="0.05457">
        <ele>639.7</ele>
        <time>2016-07-31T07:47:09Z</time>
      </trkpt>
      <trkpt lat="42.44681" lon="0.05454">
        <ele>640.2</ele>
        <time>2016-07-31T07:47:10Z</time>
      </trkpt>
      <trkpt lat="42.4468" lon="0.0545">
        <ele>640.6</ele>
        <time>2016-07-31T07:47:11Z</time>
      </trkpt>
      <trkpt lat="42.44679" lon="0.05446">
        <ele>641</ele>
        <time>2016-07-31T07:47:12Z</time>
      </trkpt>
      <trkpt lat="42.44677" lon="0.05442">
        <ele>641.4</ele>
        <time>2016-07-31T07:47:13Z</time>
      </trkpt>
      <trkpt lat="42.44676" lon="0.05438">
        <ele>641.8</ele>
        <time>2016-07-31T07:47:14Z</time>
      </trkpt>
      <trkpt lat="42.44674" lon="0.05434">
        <ele>642.2</ele>
        <time>2016-07-31T07:47:15Z</time>
      </trkpt>
      <trkpt lat="42.44674" lon="0.0543">
        <ele>642.5</ele>
        <time>2016-07-31T07:47:16Z</time>
      </trkpt>
      <trkpt lat="42.44673" lon="0.05425">
        <ele>642.7</ele>
        <time>2016-07-31T07:47:17Z</time>
      </trkpt>
      <trkpt lat="42.44672" lon="0.05421">
        <ele>643</ele>
        <time>2016-07-31T07:47:18Z</time>
      </trkpt>
      <trkpt lat="42.44671" lon="0.05417">
        <ele>643.2</ele>
        <time>2016-07-31T07:47:19Z</time>
      </trkpt>
      <trkpt lat="42.4467" lon="0.05413">
        <ele>643.4</ele>
        <time>2016-07-31T07:47:20Z</time>
      </trkpt>
      <trkpt lat="42.4467" lon="0.05409">
        <ele>643.6</ele>
        <time>2016-07-31T07:47:21Z</time>
      </trkpt>
      <trkpt lat="42.44669" lon="0.05405">
        <ele>643.8</ele>
        <time>2016-07-31T07:47:22Z</time>
      </trkpt>
      <trkpt lat="42.44668" lon="0.05401">
        <ele>643.9</ele>
        <time>2016-07-31T07:47:23Z</time>
      </trkpt>
      <trkpt lat="42.44667" lon="0.05397">
        <ele>644.1</ele>
        <time>2016-07-31T07:47:24Z</time>
      </trkpt>
      <trkpt lat="42.44667" lon="0.05392">
        <ele>644.2</ele>
        <time>2016-07-31T07:47:25Z</time>
      </trkpt>
      <trkpt lat="42.44667" lon="0.05388">
        <ele>644.3</ele>
        <time>2016-07-31T07:47:26Z</time>
      </trkpt>
      <trkpt lat="42.44667" lon="0.05384">
        <ele>644.3</ele>
        <time>2016-07-31T07:47:27Z</time>
      </trkpt>
      <trkpt lat="42.44667" lon="0.0538">
        <ele>644.4</ele>
        <time>2016-07-31T07:47:28Z</time>
      </trkpt>
      <trkpt lat="42.44668" lon="0.05376">
        <ele>644.5</ele>
        <time>2016-07-31T07:47:29Z</time>
      </trkpt>
      <trkpt lat="42.44668" lon="0.05372">
        <ele>644.3</ele>
        <time>2016-07-31T07:47:30Z</time>
      </trkpt>
      <trkpt lat="42.44668" lon="0.05368">
        <ele>644.1</ele>
        <time>2016-07-31T07:47:31Z</time>
      </trkpt>
      <trkpt lat="42.44668" lon="0.05364">
        <ele>643.9</ele>
        <time>2016-07-31T07:47:32Z</time>
      </trkpt>
      <trkpt lat="42.44668" lon="0.0536">
        <ele>643.7</ele>
        <time>2016-07-31T07:47:33Z</time>
      </trkpt>
      <trkpt lat="42.44668" lon="0.05355">
        <ele>643.4</ele>
        <time>2016-07-31T07:47:34Z</time>
      </trkpt>
      <trkpt lat="42.44668" lon="0.05351">
        <ele>643.2</ele>
        <time>2016-07-31T07:47:35Z</time>
      </trkpt>
      <trkpt lat="42.44668" lon="0.05347">
        <ele>643</ele>
        <time>2016-07-31T07:47:36Z</time>
      </trkpt>
      <trkpt lat="42.44668" lon="0.05343">
        <ele>642.8</ele>
        <time>2016-07-31T07:47:37Z</time>
      </trkpt>
      <trkpt lat="42.44668" lon="0.05339">
        <ele>642.6</ele>
        <time>2016-07-31T07:47:38Z</time>
      </trkpt>
      <trkpt lat="42.44668" lon="0.05335">
        <ele>642.4</ele>
        <time>2016-07-31T07:47:39Z</time>
      </trkpt>
      <trkpt lat="42.44668" lon="0.05331">
        <ele>642.2</ele>
        <time>2016-07-31T07:47:40Z</time>
      </trkpt>
      <trkpt lat="42.44667" lon="0.05327">
        <ele>641.9</ele>
        <time>2016-07-31T07:47:41Z</time>
      </trkpt>
      <trkpt lat="42.44667" lon="0.05322">
        <ele>641.7</ele>
        <time>2016-07-31T07:47:42Z</time>
      </trkpt>
      <trkpt lat="42.44668" lon="0.05318">
        <ele>641.5</ele>
        <time>2016-07-31T07:47:43Z</time>
      </trkpt>
      <trkpt lat="42.44668" lon="0.05314">
        <ele>641.3</ele>
        <time>2016-07-31T07:47:44Z</time>
      </trkpt>
      <trkpt lat="42.44668" lon="0.0531">
        <ele>641.1</ele>
        <time>2016-07-31T07:47:45Z</time>
      </trkpt>
      <trkpt lat="42.44668" lon="0.05306">
        <ele>641</ele>
        <time>2016-07-31T07:47:46Z</time>
      </trkpt>
      <trkpt lat="42.44669" lon="0.05302">
        <ele>640.8</ele>
        <time>2016-07-31T07:47:47Z</time>
      </trkpt>
      <trkpt lat="42.44669" lon="0.05298">
        <ele>640.6</ele>
        <time>2016-07-31T07:47:48Z</time>
      </trkpt>
      <trkpt lat="42.44669" lon="0.05294">
        <ele>640.4</ele>
        <time>2016-07-31T07:47:49Z</time>
      </trkpt>
      <trkpt lat="42.44669" lon="0.0529">
        <ele>640.4</ele>
        <time>2016-07-31T07:47:50Z</time>
      </trkpt>
      <trkpt lat="42.4467" lon="0.05285">
        <ele>640.4</ele>
        <time>2016-07-31T07:47:51Z</time>
      </trkpt>
      <trkpt lat="42.4467" lon="0.05282">
        <ele>640.4</ele>
        <time>2016-07-31T07:47:52Z</time>
      </trkpt>
      <trkpt lat="42.4467" lon="0.05278">
        <ele>640.4</ele>
        <time>2016-07-31T07:47:53Z</time>
      </trkpt>
      <trkpt lat="42.4467" lon="0.05274">
        <ele>640.4</ele>
        <time>2016-07-31T07:47:54Z</time>
      </trkpt>
      <trkpt lat="42.4467" lon="0.0527">
        <ele>640.3</ele>
        <time>2016-07-31T07:47:55Z</time>
      </trkpt>
      <trkpt lat="42.44669" lon="0.05266">
        <ele>640.3</ele>
        <time>2016-07-31T07:47:56Z</time>
      </trkpt>
      <trkpt lat="42.44669" lon="0.05262">
        <ele>640.2</ele>
        <time>2016-07-31T07:47:57Z</time>
      </trkpt>
      <trkpt lat="42.44669" lon="0.05259">
        <ele>640.2</ele>
        <time>2016-07-31T07:47:58Z</time>
      </trkpt>
      <trkpt lat="42.44669" lon="0.05255">
        <ele>640.1</ele>
        <time>2016-07-31T07:47:59Z</time>
      </trkpt>
      <trkpt lat="42.44669" lon="0.05251">
        <ele>640.1</ele>
        <time>2016-07-31T07:48:00Z</time>
      </trkpt>
      <trkpt lat="42.44669" lon="0.05247">
        <ele>640.1</ele>
        <time>2016-07-31T07:48:01Z</time>
      </trkpt>
      <trkpt lat="42.44669" lon="0.05244">
        <ele>640.1</ele>
        <time>2016-07-31T07:48:02Z</time>
      </trkpt>
      <trkpt lat="42.44669" lon="0.0524">
        <ele>640.1</ele>
        <time>2016-07-31T07:48:03Z</time>
      </trkpt>
      <trkpt lat="42.44669" lon="0.05236">
        <ele>640</ele>
        <time>2016-07-31T07:48:04Z</time>
      </trkpt>
      <trkpt lat="42.44669" lon="0.05232">
        <ele>640</ele>
        <time>2016-07-31T07:48:05Z</time>
      </trkpt>
      <trkpt lat="42.44669" lon="0.05228">
        <ele>640</ele>
        <time>2016-07-31T07:48:06Z</time>
      </trkpt>
      <trkpt lat="42.44669" lon="0.05224">
        <ele>639.9</ele>
        <time>2016-07-31T07:48:07Z</time>
      </trkpt>
      <trkpt lat="42.44669" lon="0.05219">
        <ele>639.9</ele>
        <time>2016-07-31T07:48:08Z</time>
      </trkpt>
      <trkpt lat="42.44669" lon="0.05215">
        <ele>640</ele>
        <time>2016-07-31T07:48:09Z</time>
      </trkpt>
      <trkpt lat="42.44669" lon="0.05211">
        <ele>640</ele>
        <time>2016-07-31T07:48:10Z</time>
      </trkpt>
      <trkpt lat="42.4467" lon="0.05206">
        <ele>640</ele>
        <time>2016-07-31T07:48:11Z</time>
      </trkpt>
      <trkpt lat="42.4467" lon="0.05202">
        <ele>639.8</ele>
        <time>2016-07-31T07:48:12Z</time>
      </trkpt>
      <trkpt lat="42.44671" lon="0.05198">
        <ele>639.7</ele>
        <time>2016-07-31T07:48:13Z</time>
      </trkpt>
      <trkpt lat="42.44672" lon="0.05194">
        <ele>639.7</ele>
        <time>2016-07-31T07:48:14Z</time>
      </trkpt>
      <trkpt lat="42.44673" lon="0.0519">
        <ele>639.7</ele>
        <time>2016-07-31T07:48:15Z</time>
      </trkpt>
      <trkpt lat="42.44674" lon="0.05186">
        <ele>639.7</ele>
        <time>2016-07-31T07:48:16Z</time>
      </trkpt>
      <trkpt lat="42.44675" lon="0.05182">
        <ele>639.7</ele>
        <time>2016-07-31T07:48:17Z</time>
      </trkpt>
      <trkpt lat="42.44677" lon="0.05178">
        <ele>639.7</ele>
        <time>2016-07-31T07:48:18Z</time>
      </trkpt>
      <trkpt lat="42.44678" lon="0.05174">
        <ele>639.7</ele>
        <time>2016-07-31T07:48:19Z</time>
      </trkpt>
      <trkpt lat="42.44679" lon="0.05171">
        <ele>639.7</ele>
        <time>2016-07-31T07:48:20Z</time>
      </trkpt>
      <trkpt lat="42.4468" lon="0.05167">
        <ele>639.7</ele>
        <time>2016-07-31T07:48:21Z</time>
      </trkpt>
      <trkpt lat="42.44681" lon="0.05163">
        <ele>639.6</ele>
        <time>2016-07-31T07:48:22Z</time>
      </trkpt>
      <trkpt lat="42.44681" lon="0.05159">
        <ele>639.6</ele>
        <time>2016-07-31T07:48:23Z</time>
      </trkpt>
      <trkpt lat="42.44682" lon="0.05154">
        <ele>639.5</ele>
        <time>2016-07-31T07:48:24Z</time>
      </trkpt>
      <trkpt lat="42.44683" lon="0.0515">
        <ele>639.4</ele>
        <time>2016-07-31T07:48:25Z</time>
      </trkpt>
      <trkpt lat="42.44684" lon="0.05146">
        <ele>639.3</ele>
        <time>2016-07-31T07:48:26Z</time>
      </trkpt>
      <trkpt lat="42.44684" lon="0.05142">
        <ele>639.2</ele>
        <time>2016-07-31T07:48:27Z</time>
      </trkpt>
      <trkpt lat="42.44685" lon="0.05138">
        <ele>639.1</ele>
        <time>2016-07-31T07:48:28Z</time>
      </trkpt>
      <trkpt lat="42.44685" lon="0.05134">
        <ele>639</ele>
        <time>2016-07-31T07:48:29Z</time>
      </trkpt>
      <trkpt lat="42.44685" lon="0.0513">
        <ele>638.8</ele>
        <time>2016-07-31T07:48:30Z</time>
      </trkpt>
      <trkpt lat="42.44685" lon="0.05126">
        <ele>638.6</ele>
        <time>2016-07-31T07:48:31Z</time>
      </trkpt>
      <trkpt lat="42.44685" lon="0.05122">
        <ele>638.6</ele>
        <time>2016-07-31T07:48:32Z</time>
      </trkpt>
      <trkpt lat="42.44685" lon="0.05119">
        <ele>638.9</ele>
        <time>2016-07-31T07:48:33Z</time>
      </trkpt>
      <trkpt lat="42.44685" lon="0.05115">
        <ele>639.1</ele>
        <time>2016-07-31T07:48:34Z</time>
      </trkpt>
      <trkpt lat="42.44686" lon="0.05111">
        <ele>639.4</ele>
        <time>2016-07-31T07:48:35Z</time>
      </trkpt>
      <trkpt lat="42.44686" lon="0.05107">
        <ele>639.7</ele>
        <time>2016-07-31T07:48:36Z</time>
      </trkpt>
      <trkpt lat="42.44687" lon="0.05103">
        <ele>639.9</ele>
        <time>2016-07-31T07:48:37Z</time>
      </trkpt>
      <trkpt lat="42.44688" lon="0.051">
        <ele>640.2</ele>
        <time>2016-07-31T07:48:38Z</time>
      </trkpt>
      <trkpt lat="42.44689" lon="0.05093">
        <ele>640.8</ele>
        <time>2016-07-31T07:48:40Z</time>
      </trkpt>
      <trkpt lat="42.44692" lon="0.05087">
        <ele>641.5</ele>
        <time>2016-07-31T07:48:42Z</time>
      </trkpt>
      <trkpt lat="42.44695" lon="0.05081">
        <ele>642.4</ele>
        <time>2016-07-31T07:48:44Z</time>
      </trkpt>
      <trkpt lat="42.44697" lon="0.05078">
        <ele>642.8</ele>
        <time>2016-07-31T07:48:45Z</time>
      </trkpt>
      <trkpt lat="42.44699" lon="0.05075">
        <ele>643.3</ele>
        <time>2016-07-31T07:48:46Z</time>
      </trkpt>
      <trkpt lat="42.44701" lon="0.05073">
        <ele>643.7</ele>
        <time>2016-07-31T07:48:47Z</time>
      </trkpt>
      <trkpt lat="42.44703" lon="0.0507">
        <ele>644.1</ele>
        <time>2016-07-31T07:48:48Z</time>
      </trkpt>
      <trkpt lat="42.44705" lon="0.05067">
        <ele>644.6</ele>
        <time>2016-07-31T07:48:49Z</time>
      </trkpt>
      <trkpt lat="42.44708" lon="0.05064">
        <ele>645.1</ele>
        <time>2016-07-31T07:48:50Z</time>
      </trkpt>
      <trkpt lat="42.4471" lon="0.05061">
        <ele>646</ele>
        <time>2016-07-31T07:48:51Z</time>
      </trkpt>
      <trkpt lat="42.44712" lon="0.05058">
        <ele>647</ele>
        <time>2016-07-31T07:48:52Z</time>
      </trkpt>
      <trkpt lat="42.44714" lon="0.05055">
        <ele>648.1</ele>
        <time>2016-07-31T07:48:53Z</time>
      </trkpt>
      <trkpt lat="42.44716" lon="0.05052">
        <ele>649.1</ele>
        <time>2016-07-31T07:48:54Z</time>
      </trkpt>
      <trkpt lat="42.44719" lon="0.05049">
        <ele>650</ele>
        <time>2016-07-31T07:48:55Z</time>
      </trkpt>
      <trkpt lat="42.44721" lon="0.05046">
        <ele>650.9</ele>
        <time>2016-07-31T07:48:56Z</time>
      </trkpt>
      <trkpt lat="42.44723" lon="0.05042">
        <ele>651.8</ele>
        <time>2016-07-31T07:48:57Z</time>
      </trkpt>
      <trkpt lat="42.44724" lon="0.05039">
        <ele>653.2</ele>
        <time>2016-07-31T07:48:58Z</time>
      </trkpt>
      <trkpt lat="42.44726" lon="0.05035">
        <ele>654.7</ele>
        <time>2016-07-31T07:48:59Z</time>
      </trkpt>
      <trkpt lat="42.44727" lon="0.05032">
        <ele>656.1</ele>
        <time>2016-07-31T07:49:00Z</time>
      </trkpt>
      <trkpt lat="42.44728" lon="0.05028">
        <ele>657.4</ele>
        <time>2016-07-31T07:49:01Z</time>
      </trkpt>
      <trkpt lat="42.44729" lon="0.05024">
        <ele>658.6</ele>
        <time>2016-07-31T07:49:02Z</time>
      </trkpt>
      <trkpt lat="42.4473" lon="0.0502">
        <ele>659.8</ele>
        <time>2016-07-31T07:49:03Z</time>
      </trkpt>
      <trkpt lat="42.4473" lon="0.05016">
        <ele>660.8</ele>
        <time>2016-07-31T07:49:04Z</time>
      </trkpt>
      <trkpt lat="42.4473" lon="0.05012">
        <ele>661.8</ele>
        <time>2016-07-31T07:49:05Z</time>
      </trkpt>
      <trkpt lat="42.4473" lon="0.05005">
        <ele>663.5</ele>
        <time>2016-07-31T07:49:07Z</time>
      </trkpt>
      <trkpt lat="42.4473" lon="0.05001">
        <ele>664.4</ele>
        <time>2016-07-31T07:49:08Z</time>
      </trkpt>
      <trkpt lat="42.4473" lon="0.04997">
        <ele>665.3</ele>
        <time>2016-07-31T07:49:09Z</time>
      </trkpt>
      <trkpt lat="42.44729" lon="0.04993">
        <ele>666.1</ele>
        <time>2016-07-31T07:49:10Z</time>
      </trkpt>
      <trkpt lat="42.44728" lon="0.04988">
        <ele>666.9</ele>
        <time>2016-07-31T07:49:11Z</time>
      </trkpt>
      <trkpt lat="42.44727" lon="0.04983">
        <ele>667.7</ele>
        <time>2016-07-31T07:49:12Z</time>
      </trkpt>
      <trkpt lat="42.44725" lon="0.04979">
        <ele>668.3</ele>
        <time>2016-07-31T07:49:13Z</time>
      </trkpt>
      <trkpt lat="42.44723" lon="0.04975">
        <ele>668.9</ele>
        <time>2016-07-31T07:49:14Z</time>
      </trkpt>
      <trkpt lat="42.44721" lon="0.0497">
        <ele>669.4</ele>
        <time>2016-07-31T07:49:15Z</time>
      </trkpt>
      <trkpt lat="42.44718" lon="0.04966">
        <ele>669.8</ele>
        <time>2016-07-31T07:49:16Z</time>
      </trkpt>
      <trkpt lat="42.44714" lon="0.04962">
        <ele>670.1</ele>
        <time>2016-07-31T07:49:17Z</time>
      </trkpt>
      <trkpt lat="42.44711" lon="0.04959">
        <ele>670.3</ele>
        <time>2016-07-31T07:49:18Z</time>
      </trkpt>
      <trkpt lat="42.44707" lon="0.04956">
        <ele>669.9</ele>
        <time>2016-07-31T07:49:19Z</time>
      </trkpt>
      <trkpt lat="42.44703" lon="0.04954">
        <ele>669.2</ele>
        <time>2016-07-31T07:49:20Z</time>
      </trkpt>
      <trkpt lat="42.44699" lon="0.04952">
        <ele>668.4</ele>
        <time>2016-07-31T07:49:21Z</time>
      </trkpt>
      <trkpt lat="42.44694" lon="0.0495">
        <ele>667.4</ele>
        <time>2016-07-31T07:49:22Z</time>
      </trkpt>
      <trkpt lat="42.4469" lon="0.04949">
        <ele>666.4</ele>
        <time>2016-07-31T07:49:23Z</time>
      </trkpt>
      <trkpt lat="42.44684" lon="0.04948">
        <ele>665</ele>
        <time>2016-07-31T07:49:24Z</time>
      </trkpt>
      <trkpt lat="42.4468" lon="0.04946">
        <ele>664.1</ele>
        <time>2016-07-31T07:49:25Z</time>
      </trkpt>
      <trkpt lat="42.44676" lon="0.04943">
        <ele>663.2</ele>
        <time>2016-07-31T07:49:26Z</time>
      </trkpt>
      <trkpt lat="42.44671" lon="0.04941">
        <ele>662.2</ele>
        <time>2016-07-31T07:49:27Z</time>
      </trkpt>
      <trkpt lat="42.44667" lon="0.0494">
        <ele>661.2</ele>
        <time>2016-07-31T07:49:28Z</time>
      </trkpt>
      <trkpt lat="42.44663" lon="0.04939">
        <ele>660.1</ele>
        <time>2016-07-31T07:49:29Z</time>
      </trkpt>
      <trkpt lat="42.44659" lon="0.04938">
        <ele>659.2</ele>
        <time>2016-07-31T07:49:30Z</time>
      </trkpt>
      <trkpt lat="42.44655" lon="0.04935">
        <ele>658.1</ele>
        <time>2016-07-31T07:49:31Z</time>
      </trkpt>
      <trkpt lat="42.4465" lon="0.04934">
        <ele>657</ele>
        <time>2016-07-31T07:49:32Z</time>
      </trkpt>
      <trkpt lat="42.44645" lon="0.04932">
        <ele>655.8</ele>
        <time>2016-07-31T07:49:33Z</time>
      </trkpt>
      <trkpt lat="42.44641" lon="0.0493">
        <ele>654.7</ele>
        <time>2016-07-31T07:49:34Z</time>
      </trkpt>
      <trkpt lat="42.44636" lon="0.04928">
        <ele>653.5</ele>
        <time>2016-07-31T07:49:35Z</time>
      </trkpt>
      <trkpt lat="42.44632" lon="0.04925">
        <ele>652.4</ele>
        <time>2016-07-31T07:49:36Z</time>
      </trkpt>
      <trkpt lat="42.44628" lon="0.04922">
        <ele>651.4</ele>
        <time>2016-07-31T07:49:37Z</time>
      </trkpt>
      <trkpt lat="42.44623" lon="0.0492">
        <ele>650.6</ele>
        <time>2016-07-31T07:49:38Z</time>
      </trkpt>
      <trkpt lat="42.44619" lon="0.04916">
        <ele>650.5</ele>
        <time>2016-07-31T07:49:39Z</time>
      </trkpt>
      <trkpt lat="42.44616" lon="0.04911">
        <ele>650.5</ele>
        <time>2016-07-31T07:49:40Z</time>
      </trkpt>
      <trkpt lat="42.44612" lon="0.04906">
        <ele>650.4</ele>
        <time>2016-07-31T07:49:41Z</time>
      </trkpt>
      <trkpt lat="42.44606" lon="0.04887">
        <ele>650.5</ele>
        <time>2016-07-31T07:49:44Z</time>
      </trkpt>
      <trkpt lat="42.44604" lon="0.04881">
        <ele>650.5</ele>
        <time>2016-07-31T07:49:45Z</time>
      </trkpt>
      <trkpt lat="42.44604" lon="0.04875">
        <ele>650.7</ele>
        <time>2016-07-31T07:49:46Z</time>
      </trkpt>
      <trkpt lat="42.44603" lon="0.04869">
        <ele>650.6</ele>
        <time>2016-07-31T07:49:47Z</time>
      </trkpt>
      <trkpt lat="42.44603" lon="0.04863">
        <ele>650.5</ele>
        <time>2016-07-31T07:49:48Z</time>
      </trkpt>
      <trkpt lat="42.44603" lon="0.04858">
        <ele>650.6</ele>
        <time>2016-07-31T07:49:49Z</time>
      </trkpt>
      <trkpt lat="42.44604" lon="0.04851">
        <ele>650.6</ele>
        <time>2016-07-31T07:49:50Z</time>
      </trkpt>
      <trkpt lat="42.44604" lon="0.04844">
        <ele>650.7</ele>
        <time>2016-07-31T07:49:51Z</time>
      </trkpt>
      <trkpt lat="42.44605" lon="0.04838">
        <ele>650.7</ele>
        <time>2016-07-31T07:49:52Z</time>
      </trkpt>
      <trkpt lat="42.44606" lon="0.04832">
        <ele>650.9</ele>
        <time>2016-07-31T07:49:53Z</time>
      </trkpt>
      <trkpt lat="42.44607" lon="0.04825">
        <ele>651</ele>
        <time>2016-07-31T07:49:54Z</time>
      </trkpt>
      <trkpt lat="42.44609" lon="0.04818">
        <ele>651.1</ele>
        <time>2016-07-31T07:49:55Z</time>
      </trkpt>
      <trkpt lat="42.44609" lon="0.04812">
        <ele>651.1</ele>
        <time>2016-07-31T07:49:56Z</time>
      </trkpt>
      <trkpt lat="42.4461" lon="0.04805">
        <ele>651.3</ele>
        <time>2016-07-31T07:49:57Z</time>
      </trkpt>
      <trkpt lat="42.44611" lon="0.04799">
        <ele>651.4</ele>
        <time>2016-07-31T07:49:58Z</time>
      </trkpt>
      <trkpt lat="42.44612" lon="0.04793">
        <ele>651.4</ele>
        <time>2016-07-31T07:49:59Z</time>
      </trkpt>
      <trkpt lat="42.44613" lon="0.04786">
        <ele>652.2</ele>
        <time>2016-07-31T07:50:00Z</time>
      </trkpt>
      <trkpt lat="42.44614" lon="0.0478">
        <ele>653.1</ele>
        <time>2016-07-31T07:50:01Z</time>
      </trkpt>
      <trkpt lat="42.44614" lon="0.04774">
        <ele>654</ele>
        <time>2016-07-31T07:50:02Z</time>
      </trkpt>
      <trkpt lat="42.44614" lon="0.04766">
        <ele>655</ele>
        <time>2016-07-31T07:50:03Z</time>
      </trkpt>
      <trkpt lat="42.44614" lon="0.0476">
        <ele>655.9</ele>
        <time>2016-07-31T07:50:04Z</time>
      </trkpt>
      <trkpt lat="42.44615" lon="0.04753">
        <ele>656.7</ele>
        <time>2016-07-31T07:50:05Z</time>
      </trkpt>
      <trkpt lat="42.44616" lon="0.04746">
        <ele>657.7</ele>
        <time>2016-07-31T07:50:06Z</time>
      </trkpt>
      <trkpt lat="42.44615" lon="0.0474">
        <ele>658.4</ele>
        <time>2016-07-31T07:50:07Z</time>
      </trkpt>
      <trkpt lat="42.44615" lon="0.04735">
        <ele>659.1</ele>
        <time>2016-07-31T07:50:08Z</time>
      </trkpt>
      <trkpt lat="42.44614" lon="0.04728">
        <ele>660</ele>
        <time>2016-07-31T07:50:09Z</time>
      </trkpt>
      <trkpt lat="42.44612" lon="0.04722">
        <ele>660.8</ele>
        <time>2016-07-31T07:50:10Z</time>
      </trkpt>
      <trkpt lat="42.44611" lon="0.04716">
        <ele>661.7</ele>
        <time>2016-07-31T07:50:11Z</time>
      </trkpt>
      <trkpt lat="42.44608" lon="0.0471">
        <ele>662.6</ele>
        <time>2016-07-31T07:50:12Z</time>
      </trkpt>
      <trkpt lat="42.44605" lon="0.04705">
        <ele>663.5</ele>
        <time>2016-07-31T07:50:13Z</time>
      </trkpt>
      <trkpt lat="42.44601" lon="0.04701">
        <ele>664.2</ele>
        <time>2016-07-31T07:50:14Z</time>
      </trkpt>
      <trkpt lat="42.44597" lon="0.04699">
        <ele>664.8</ele>
        <time>2016-07-31T07:50:15Z</time>
      </trkpt>
      <trkpt lat="42.44593" lon="0.04696">
        <ele>665.5</ele>
        <time>2016-07-31T07:50:16Z</time>
      </trkpt>
      <trkpt lat="42.44588" lon="0.04694">
        <ele>666.3</ele>
        <time>2016-07-31T07:50:17Z</time>
      </trkpt>
      <trkpt lat="42.44584" lon="0.04692">
        <ele>666.9</ele>
        <time>2016-07-31T07:50:18Z</time>
      </trkpt>
      <trkpt lat="42.4458" lon="0.0469">
        <ele>667.6</ele>
        <time>2016-07-31T07:50:19Z</time>
      </trkpt>
      <trkpt lat="42.44574" lon="0.04689">
        <ele>668.4</ele>
        <time>2016-07-31T07:50:20Z</time>
      </trkpt>
      <trkpt lat="42.4457" lon="0.04689">
        <ele>668.8</ele>
        <time>2016-07-31T07:50:21Z</time>
      </trkpt>
      <trkpt lat="42.44565" lon="0.04688">
        <ele>669.5</ele>
        <time>2016-07-31T07:50:22Z</time>
      </trkpt>
      <trkpt lat="42.4456" lon="0.04686">
        <ele>670.2</ele>
        <time>2016-07-31T07:50:23Z</time>
      </trkpt>
      <trkpt lat="42.44555" lon="0.04684">
        <ele>671.2</ele>
        <time>2016-07-31T07:50:24Z</time>
      </trkpt>
      <trkpt lat="42.44551" lon="0.04684">
        <ele>671.8</ele>
        <time>2016-07-31T07:50:25Z</time>
      </trkpt>
      <trkpt lat="42.44546" lon="0.04682">
        <ele>672.8</ele>
        <time>2016-07-31T07:50:26Z</time>
      </trkpt>
      <trkpt lat="42.44542" lon="0.04681">
        <ele>673.6</ele>
        <time>2016-07-31T07:50:27Z</time>
      </trkpt>
      <trkpt lat="42.44537" lon="0.04681">
        <ele>674</ele>
        <time>2016-07-31T07:50:28Z</time>
      </trkpt>
      <trkpt lat="42.44533" lon="0.0468">
        <ele>674.6</ele>
        <time>2016-07-31T07:50:29Z</time>
      </trkpt>
      <trkpt lat="42.44528" lon="0.04678">
        <ele>675.3</ele>
        <time>2016-07-31T07:50:30Z</time>
      </trkpt>
      <trkpt lat="42.44524" lon="0.04676">
        <ele>676.3</ele>
        <time>2016-07-31T07:50:31Z</time>
      </trkpt>
      <trkpt lat="42.4452" lon="0.04675">
        <ele>676.8</ele>
        <time>2016-07-31T07:50:32Z</time>
      </trkpt>
      <trkpt lat="42.44515" lon="0.04675">
        <ele>677.3</ele>
        <time>2016-07-31T07:50:33Z</time>
      </trkpt>
      <trkpt lat="42.4451" lon="0.04673">
        <ele>678.2</ele>
        <time>2016-07-31T07:50:34Z</time>
      </trkpt>
      <trkpt lat="42.44505" lon="0.04672">
        <ele>679</ele>
        <time>2016-07-31T07:50:35Z</time>
      </trkpt>
      <trkpt lat="42.445" lon="0.0467">
        <ele>680</ele>
        <time>2016-07-31T07:50:36Z</time>
      </trkpt>
      <trkpt lat="42.44496" lon="0.04669">
        <ele>680.6</ele>
        <time>2016-07-31T07:50:37Z</time>
      </trkpt>
      <trkpt lat="42.44492" lon="0.04668">
        <ele>681.2</ele>
        <time>2016-07-31T07:50:38Z</time>
      </trkpt>
      <trkpt lat="42.44488" lon="0.04667">
        <ele>682</ele>
        <time>2016-07-31T07:50:39Z</time>
      </trkpt>
      <trkpt lat="42.44484" lon="0.04666">
        <ele>682.5</ele>
        <time>2016-07-31T07:50:40Z</time>
      </trkpt>
      <trkpt lat="42.4448" lon="0.04666">
        <ele>682.9</ele>
        <time>2016-07-31T07:50:41Z</time>
      </trkpt>
      <trkpt lat="42.44476" lon="0.04666">
        <ele>683.3</ele>
        <time>2016-07-31T07:50:42Z</time>
      </trkpt>
      <trkpt lat="42.44472" lon="0.04665">
        <ele>683.8</ele>
        <time>2016-07-31T07:50:43Z</time>
      </trkpt>
      <trkpt lat="42.44468" lon="0.04664">
        <ele>684.5</ele>
        <time>2016-07-31T07:50:44Z</time>
      </trkpt>
      <trkpt lat="42.44464" lon="0.04663">
        <ele>685.2</ele>
        <time>2016-07-31T07:50:45Z</time>
      </trkpt>
      <trkpt lat="42.4446" lon="0.04662">
        <ele>685.9</ele>
        <time>2016-07-31T07:50:46Z</time>
      </trkpt>
      <trkpt lat="42.44457" lon="0.04662">
        <ele>686.3</ele>
        <time>2016-07-31T07:50:47Z</time>
      </trkpt>
      <trkpt lat="42.44453" lon="0.04662">
        <ele>686.2</ele>
        <time>2016-07-31T07:50:48Z</time>
      </trkpt>
      <trkpt lat="42.4445" lon="0.04662">
        <ele>686.1</ele>
        <time>2016-07-31T07:50:49Z</time>
      </trkpt>
      <trkpt lat="42.44446" lon="0.04662">
        <ele>686.1</ele>
        <time>2016-07-31T07:50:50Z</time>
      </trkpt>
      <trkpt lat="42.44443" lon="0.04662">
        <ele>686</ele>
        <time>2016-07-31T07:50:51Z</time>
      </trkpt>
      <trkpt lat="42.44439" lon="0.04663">
        <ele>685.9</ele>
        <time>2016-07-31T07:50:52Z</time>
      </trkpt>
      <trkpt lat="42.44436" lon="0.04663">
        <ele>685.8</ele>
        <time>2016-07-31T07:50:53Z</time>
      </trkpt>
      <trkpt lat="42.44433" lon="0.04664">
        <ele>685.5</ele>
        <time>2016-07-31T07:50:54Z</time>
      </trkpt>
      <trkpt lat="42.4443" lon="0.04665">
        <ele>685.2</ele>
        <time>2016-07-31T07:50:55Z</time>
      </trkpt>
      <trkpt lat="42.44427" lon="0.04666">
        <ele>684.9</ele>
        <time>2016-07-31T07:50:56Z</time>
      </trkpt>
      <trkpt lat="42.44424" lon="0.04666">
        <ele>684.7</ele>
        <time>2016-07-31T07:50:57Z</time>
      </trkpt>
      <trkpt lat="42.4442" lon="0.04667">
        <ele>684.5</ele>
        <time>2016-07-31T07:50:58Z</time>
      </trkpt>
      <trkpt lat="42.44417" lon="0.04667">
        <ele>684.4</ele>
        <time>2016-07-31T07:50:59Z</time>
      </trkpt>
      <trkpt lat="42.44414" lon="0.04667">
        <ele>684.3</ele>
        <time>2016-07-31T07:51:00Z</time>
      </trkpt>
      <trkpt lat="42.4441" lon="0.04668">
        <ele>684.1</ele>
        <time>2016-07-31T07:51:01Z</time>
      </trkpt>
      <trkpt lat="42.44407" lon="0.04668">
        <ele>683.9</ele>
        <time>2016-07-31T07:51:02Z</time>
      </trkpt>
      <trkpt lat="42.44404" lon="0.04668">
        <ele>683.9</ele>
        <time>2016-07-31T07:51:03Z</time>
      </trkpt>
      <trkpt lat="42.44401" lon="0.04668">
        <ele>684</ele>
        <time>2016-07-31T07:51:04Z</time>
      </trkpt>
      <trkpt lat="42.44397" lon="0.04668">
        <ele>684.2</ele>
        <time>2016-07-31T07:51:05Z</time>
      </trkpt>
      <trkpt lat="42.44394" lon="0.04667">
        <ele>684.5</ele>
        <time>2016-07-31T07:51:06Z</time>
      </trkpt>
      <trkpt lat="42.44391" lon="0.04666">
        <ele>684.7</ele>
        <time>2016-07-31T07:51:07Z</time>
      </trkpt>
      <trkpt lat="42.44388" lon="0.04665">
        <ele>685.1</ele>
        <time>2016-07-31T07:51:08Z</time>
      </trkpt>
      <trkpt lat="42.44385" lon="0.04664">
        <ele>685.6</ele>
        <time>2016-07-31T07:51:09Z</time>
      </trkpt>
      <trkpt lat="42.44383" lon="0.04662">
        <ele>686.1</ele>
        <time>2016-07-31T07:51:10Z</time>
      </trkpt>
      <trkpt lat="42.4438" lon="0.04661">
        <ele>686.6</ele>
        <time>2016-07-31T07:51:11Z</time>
      </trkpt>
      <trkpt lat="42.44378" lon="0.04659">
        <ele>687.2</ele>
        <time>2016-07-31T07:51:12Z</time>
      </trkpt>
      <trkpt lat="42.44375" lon="0.04658">
        <ele>687.7</ele>
        <time>2016-07-31T07:51:13Z</time>
      </trkpt>
      <trkpt lat="42.44372" lon="0.04657">
        <ele>688.1</ele>
        <time>2016-07-31T07:51:14Z</time>
      </trkpt>
      <trkpt lat="42.44369" lon="0.04656">
        <ele>688.3</ele>
        <time>2016-07-31T07:51:15Z</time>
      </trkpt>
      <trkpt lat="42.44366" lon="0.04655">
        <ele>688.7</ele>
        <time>2016-07-31T07:51:16Z</time>
      </trkpt>
      <trkpt lat="42.44363" lon="0.04653">
        <ele>689.2</ele>
        <time>2016-07-31T07:51:17Z</time>
      </trkpt>
      <trkpt lat="42.4436" lon="0.04652">
        <ele>689.8</ele>
        <time>2016-07-31T07:51:18Z</time>
      </trkpt>
      <trkpt lat="42.44357" lon="0.0465">
        <ele>690.3</ele>
        <time>2016-07-31T07:51:19Z</time>
      </trkpt>
      <trkpt lat="42.44354" lon="0.04649">
        <ele>690.9</ele>
        <time>2016-07-31T07:51:20Z</time>
      </trkpt>
      <trkpt lat="42.44351" lon="0.04647">
        <ele>691.3</ele>
        <time>2016-07-31T07:51:21Z</time>
      </trkpt>
      <trkpt lat="42.44348" lon="0.04646">
        <ele>691.6</ele>
        <time>2016-07-31T07:51:22Z</time>
      </trkpt>
      <trkpt lat="42.44346" lon="0.04646">
        <ele>691.8</ele>
        <time>2016-07-31T07:51:23Z</time>
      </trkpt>
      <trkpt lat="42.44343" lon="0.04645">
        <ele>692.1</ele>
        <time>2016-07-31T07:51:24Z</time>
      </trkpt>
      <trkpt lat="42.4434" lon="0.04644">
        <ele>692.3</ele>
        <time>2016-07-31T07:51:25Z</time>
      </trkpt>
      <trkpt lat="42.44337" lon="0.04643">
        <ele>692.5</ele>
        <time>2016-07-31T07:51:26Z</time>
      </trkpt>
      <trkpt lat="42.44335" lon="0.04642">
        <ele>692.9</ele>
        <time>2016-07-31T07:51:27Z</time>
      </trkpt>
      <trkpt lat="42.44332" lon="0.04641">
        <ele>693.3</ele>
        <time>2016-07-31T07:51:28Z</time>
      </trkpt>
      <trkpt lat="42.44329" lon="0.0464">
        <ele>693.6</ele>
        <time>2016-07-31T07:51:29Z</time>
      </trkpt>
      <trkpt lat="42.44327" lon="0.0464">
        <ele>693.8</ele>
        <time>2016-07-31T07:51:30Z</time>
      </trkpt>
      <trkpt lat="42.44324" lon="0.04639">
        <ele>693.8</ele>
        <time>2016-07-31T07:51:31Z</time>
      </trkpt>
      <trkpt lat="42.44321" lon="0.04639">
        <ele>693.8</ele>
        <time>2016-07-31T07:51:32Z</time>
      </trkpt>
      <trkpt lat="42.44318" lon="0.0464">
        <ele>693.7</ele>
        <time>2016-07-31T07:51:33Z</time>
      </trkpt>
      <trkpt lat="42.44315" lon="0.04639">
        <ele>693.8</ele>
        <time>2016-07-31T07:51:34Z</time>
      </trkpt>
      <trkpt lat="42.44312" lon="0.04639">
        <ele>694</ele>
        <time>2016-07-31T07:51:35Z</time>
      </trkpt>
      <trkpt lat="42.44309" lon="0.04638">
        <ele>694.2</ele>
        <time>2016-07-31T07:51:36Z</time>
      </trkpt>
      <trkpt lat="42.44306" lon="0.04637">
        <ele>694.5</ele>
        <time>2016-07-31T07:51:37Z</time>
      </trkpt>
      <trkpt lat="42.44303" lon="0.04636">
        <ele>694.9</ele>
        <time>2016-07-31T07:51:38Z</time>
      </trkpt>
      <trkpt lat="42.443" lon="0.04634">
        <ele>695.3</ele>
        <time>2016-07-31T07:51:39Z</time>
      </trkpt>
      <trkpt lat="42.44298" lon="0.04633">
        <ele>695.8</ele>
        <time>2016-07-31T07:51:40Z</time>
      </trkpt>
      <trkpt lat="42.44295" lon="0.04631">
        <ele>696.2</ele>
        <time>2016-07-31T07:51:41Z</time>
      </trkpt>
      <trkpt lat="42.44292" lon="0.0463">
        <ele>696.5</ele>
        <time>2016-07-31T07:51:42Z</time>
      </trkpt>
      <trkpt lat="42.44289" lon="0.04629">
        <ele>697.1</ele>
        <time>2016-07-31T07:51:43Z</time>
      </trkpt>
      <trkpt lat="42.44286" lon="0.04628">
        <ele>697.7</ele>
        <time>2016-07-31T07:51:44Z</time>
      </trkpt>
      <trkpt lat="42.44284" lon="0.04627">
        <ele>698.3</ele>
        <time>2016-07-31T07:51:45Z</time>
      </trkpt>
      <trkpt lat="42.44281" lon="0.04627">
        <ele>698.9</ele>
        <time>2016-07-31T07:51:46Z</time>
      </trkpt>
      <trkpt lat="42.44276" lon="0.04625">
        <ele>699.8</ele>
        <time>2016-07-31T07:51:48Z</time>
      </trkpt>
      <trkpt lat="42.44271" lon="0.04624">
        <ele>700.8</ele>
        <time>2016-07-31T07:51:50Z</time>
      </trkpt>
      <trkpt lat="42.44266" lon="0.04623">
        <ele>702</ele>
        <time>2016-07-31T07:51:52Z</time>
      </trkpt>
      <trkpt lat="42.44261" lon="0.0462">
        <ele>703.3</ele>
        <time>2016-07-31T07:51:54Z</time>
      </trkpt>
      <trkpt lat="42.44256" lon="0.04618">
        <ele>704.5</ele>
        <time>2016-07-31T07:51:56Z</time>
      </trkpt>
      <trkpt lat="42.44251" lon="0.04617">
        <ele>705.5</ele>
        <time>2016-07-31T07:51:58Z</time>
      </trkpt>
      <trkpt lat="42.44246" lon="0.04616">
        <ele>706.4</ele>
        <time>2016-07-31T07:52:00Z</time>
      </trkpt>
      <trkpt lat="42.44241" lon="0.04614">
        <ele>707.5</ele>
        <time>2016-07-31T07:52:02Z</time>
      </trkpt>
      <trkpt lat="42.44236" lon="0.04612">
        <ele>708.8</ele>
        <time>2016-07-31T07:52:04Z</time>
      </trkpt>
      <trkpt lat="42.44232" lon="0.04609">
        <ele>710.1</ele>
        <time>2016-07-31T07:52:06Z</time>
      </trkpt>
      <trkpt lat="42.44227" lon="0.04606">
        <ele>711.4</ele>
        <time>2016-07-31T07:52:08Z</time>
      </trkpt>
      <trkpt lat="42.44222" lon="0.04605">
        <ele>712.4</ele>
        <time>2016-07-31T07:52:10Z</time>
      </trkpt>
      <trkpt lat="42.44216" lon="0.04603">
        <ele>713.4</ele>
        <time>2016-07-31T07:52:12Z</time>
      </trkpt>
      <trkpt lat="42.44211" lon="0.04601">
        <ele>714.3</ele>
        <time>2016-07-31T07:52:14Z</time>
      </trkpt>
      <trkpt lat="42.44206" lon="0.046">
        <ele>714.8</ele>
        <time>2016-07-31T07:52:16Z</time>
      </trkpt>
      <trkpt lat="42.44201" lon="0.046">
        <ele>714.8</ele>
        <time>2016-07-31T07:52:18Z</time>
      </trkpt>
      <trkpt lat="42.44195" lon="0.04601">
        <ele>714.4</ele>
        <time>2016-07-31T07:52:20Z</time>
      </trkpt>
      <trkpt lat="42.44193" lon="0.04602">
        <ele>714.1</ele>
        <time>2016-07-31T07:52:21Z</time>
      </trkpt>
      <trkpt lat="42.4419" lon="0.04604">
        <ele>713.7</ele>
        <time>2016-07-31T07:52:22Z</time>
      </trkpt>
      <trkpt lat="42.44188" lon="0.04605">
        <ele>713.3</ele>
        <time>2016-07-31T07:52:23Z</time>
      </trkpt>
      <trkpt lat="42.44185" lon="0.04607">
        <ele>712.8</ele>
        <time>2016-07-31T07:52:24Z</time>
      </trkpt>
      <trkpt lat="42.44183" lon="0.04609">
        <ele>712.3</ele>
        <time>2016-07-31T07:52:25Z</time>
      </trkpt>
      <trkpt lat="42.4418" lon="0.0461">
        <ele>711.8</ele>
        <time>2016-07-31T07:52:26Z</time>
      </trkpt>
      <trkpt lat="42.44178" lon="0.04612">
        <ele>711.4</ele>
        <time>2016-07-31T07:52:27Z</time>
      </trkpt>
      <trkpt lat="42.44173" lon="0.04615">
        <ele>710.7</ele>
        <time>2016-07-31T07:52:29Z</time>
      </trkpt>
      <trkpt lat="42.44168" lon="0.04618">
        <ele>709.8</ele>
        <time>2016-07-31T07:52:31Z</time>
      </trkpt>
      <trkpt lat="42.44164" lon="0.04622">
        <ele>708.8</ele>
        <time>2016-07-31T07:52:33Z</time>
      </trkpt>
      <trkpt lat="42.4416" lon="0.04625">
        <ele>708</ele>
        <time>2016-07-31T07:52:35Z</time>
      </trkpt>
      <trkpt lat="42.44156" lon="0.04629">
        <ele>707.9</ele>
        <time>2016-07-31T07:52:37Z</time>
      </trkpt>
      <trkpt lat="42.44151" lon="0.04631">
        <ele>707.9</ele>
        <time>2016-07-31T07:52:39Z</time>
      </trkpt>
      <trkpt lat="42.44147" lon="0.04633">
        <ele>708</ele>
        <time>2016-07-31T07:52:41Z</time>
      </trkpt>
      <trkpt lat="42.44142" lon="0.04634">
        <ele>708.1</ele>
        <time>2016-07-31T07:52:43Z</time>
      </trkpt>
      <trkpt lat="42.44137" lon="0.04633">
        <ele>708.2</ele>
        <time>2016-07-31T07:52:45Z</time>
      </trkpt>
      <trkpt lat="42.44133" lon="0.04631">
        <ele>708.2</ele>
        <time>2016-07-31T07:52:47Z</time>
      </trkpt>
      <trkpt lat="42.44128" lon="0.0463">
        <ele>708.2</ele>
        <time>2016-07-31T07:52:49Z</time>
      </trkpt>
      <trkpt lat="42.44123" lon="0.04628">
        <ele>708.7</ele>
        <time>2016-07-31T07:52:51Z</time>
      </trkpt>
      <trkpt lat="42.44119" lon="0.04626">
        <ele>709.9</ele>
        <time>2016-07-31T07:52:53Z</time>
      </trkpt>
      <trkpt lat="42.44114" lon="0.04624">
        <ele>711.4</ele>
        <time>2016-07-31T07:52:55Z</time>
      </trkpt>
      <trkpt lat="42.44109" lon="0.04623">
        <ele>712.9</ele>
        <time>2016-07-31T07:52:57Z</time>
      </trkpt>
      <trkpt lat="42.44105" lon="0.04621">
        <ele>714.5</ele>
        <time>2016-07-31T07:52:59Z</time>
      </trkpt>
      <trkpt lat="42.441" lon="0.04619">
        <ele>716</ele>
        <time>2016-07-31T07:53:01Z</time>
      </trkpt>
      <trkpt lat="42.44096" lon="0.04616">
        <ele>717.5</ele>
        <time>2016-07-31T07:53:03Z</time>
      </trkpt>
      <trkpt lat="42.44091" lon="0.04614">
        <ele>718.9</ele>
        <time>2016-07-31T07:53:05Z</time>
      </trkpt>
      <trkpt lat="42.44086" lon="0.04611">
        <ele>720.3</ele>
        <time>2016-07-31T07:53:07Z</time>
      </trkpt>
      <trkpt lat="42.44082" lon="0.04609">
        <ele>721.4</ele>
        <time>2016-07-31T07:53:09Z</time>
      </trkpt>
      <trkpt lat="42.44077" lon="0.04608">
        <ele>722.6</ele>
        <time>2016-07-31T07:53:11Z</time>
      </trkpt>
      <trkpt lat="42.44072" lon="0.04606">
        <ele>723.6</ele>
        <time>2016-07-31T07:53:13Z</time>
      </trkpt>
      <trkpt lat="42.44068" lon="0.04604">
        <ele>724.7</ele>
        <time>2016-07-31T07:53:15Z</time>
      </trkpt>
      <trkpt lat="42.44063" lon="0.04603">
        <ele>725.6</ele>
        <time>2016-07-31T07:53:17Z</time>
      </trkpt>
      <trkpt lat="42.44058" lon="0.04601">
        <ele>726.5</ele>
        <time>2016-07-31T07:53:19Z</time>
      </trkpt>
      <trkpt lat="42.44054" lon="0.04599">
        <ele>727.2</ele>
        <time>2016-07-31T07:53:21Z</time>
      </trkpt>
      <trkpt lat="42.44049" lon="0.04597">
        <ele>727.9</ele>
        <time>2016-07-31T07:53:23Z</time>
      </trkpt>
      <trkpt lat="42.44045" lon="0.04595">
        <ele>728.6</ele>
        <time>2016-07-31T07:53:25Z</time>
      </trkpt>
      <trkpt lat="42.4404" lon="0.04593">
        <ele>729.5</ele>
        <time>2016-07-31T07:53:27Z</time>
      </trkpt>
      <trkpt lat="42.44035" lon="0.0459">
        <ele>731.1</ele>
        <time>2016-07-31T07:53:29Z</time>
      </trkpt>
      <trkpt lat="42.44031" lon="0.04588">
        <ele>732.5</ele>
        <time>2016-07-31T07:53:31Z</time>
      </trkpt>
      <trkpt lat="42.44027" lon="0.04585">
        <ele>733.8</ele>
        <time>2016-07-31T07:53:33Z</time>
      </trkpt>
      <trkpt lat="42.44022" lon="0.04582">
        <ele>735</ele>
        <time>2016-07-31T07:53:35Z</time>
      </trkpt>
      <trkpt lat="42.44018" lon="0.04578">
        <ele>736.1</ele>
        <time>2016-07-31T07:53:37Z</time>
      </trkpt>
      <trkpt lat="42.44015" lon="0.04574">
        <ele>736.7</ele>
        <time>2016-07-31T07:53:39Z</time>
      </trkpt>
      <trkpt lat="42.44012" lon="0.04568">
        <ele>736.9</ele>
        <time>2016-07-31T07:53:41Z</time>
      </trkpt>
      <trkpt lat="42.44009" lon="0.04562">
        <ele>736.9</ele>
        <time>2016-07-31T07:53:43Z</time>
      </trkpt>
      <trkpt lat="42.44007" lon="0.04556">
        <ele>736.6</ele>
        <time>2016-07-31T07:53:45Z</time>
      </trkpt>
      <trkpt lat="42.44006" lon="0.04549">
        <ele>736</ele>
        <time>2016-07-31T07:53:47Z</time>
      </trkpt>
      <trkpt lat="42.44005" lon="0.04545">
        <ele>735.6</ele>
        <time>2016-07-31T07:53:48Z</time>
      </trkpt>
      <trkpt lat="42.44005" lon="0.04541">
        <ele>735.1</ele>
        <time>2016-07-31T07:53:49Z</time>
      </trkpt>
      <trkpt lat="42.44005" lon="0.04538">
        <ele>735.4</ele>
        <time>2016-07-31T07:53:50Z</time>
      </trkpt>
      <trkpt lat="42.44005" lon="0.04534">
        <ele>735.6</ele>
        <time>2016-07-31T07:53:51Z</time>
      </trkpt>
      <trkpt lat="42.44006" lon="0.0453">
        <ele>735.8</ele>
        <time>2016-07-31T07:53:52Z</time>
      </trkpt>
      <trkpt lat="42.44007" lon="0.04526">
        <ele>735.8</ele>
        <time>2016-07-31T07:53:53Z</time>
      </trkpt>
      <trkpt lat="42.44008" lon="0.04523">
        <ele>735.7</ele>
        <time>2016-07-31T07:53:54Z</time>
      </trkpt>
      <trkpt lat="42.44011" lon="0.0452">
        <ele>735.6</ele>
        <time>2016-07-31T07:53:55Z</time>
      </trkpt>
      <trkpt lat="42.44013" lon="0.04517">
        <ele>735.4</ele>
        <time>2016-07-31T07:53:56Z</time>
      </trkpt>
      <trkpt lat="42.44016" lon="0.04515">
        <ele>735.2</ele>
        <time>2016-07-31T07:53:57Z</time>
      </trkpt>
      <trkpt lat="42.44019" lon="0.04513">
        <ele>734.9</ele>
        <time>2016-07-31T07:53:58Z</time>
      </trkpt>
      <trkpt lat="42.44022" lon="0.04512">
        <ele>734.7</ele>
        <time>2016-07-31T07:53:59Z</time>
      </trkpt>
      <trkpt lat="42.44026" lon="0.04511">
        <ele>734.4</ele>
        <time>2016-07-31T07:54:00Z</time>
      </trkpt>
      <trkpt lat="42.44029" lon="0.0451">
        <ele>734.1</ele>
        <time>2016-07-31T07:54:01Z</time>
      </trkpt>
      <trkpt lat="42.44032" lon="0.0451">
        <ele>733.8</ele>
        <time>2016-07-31T07:54:02Z</time>
      </trkpt>
      <trkpt lat="42.44035" lon="0.0451">
        <ele>733.4</ele>
        <time>2016-07-31T07:54:03Z</time>
      </trkpt>
      <trkpt lat="42.44038" lon="0.0451">
        <ele>732.9</ele>
        <time>2016-07-31T07:54:04Z</time>
      </trkpt>
      <trkpt lat="42.44041" lon="0.04511">
        <ele>732.3</ele>
        <time>2016-07-31T07:54:05Z</time>
      </trkpt>
      <trkpt lat="42.44044" lon="0.04512">
        <ele>732</ele>
        <time>2016-07-31T07:54:06Z</time>
      </trkpt>
      <trkpt lat="42.44047" lon="0.04514">
        <ele>731.7</ele>
        <time>2016-07-31T07:54:07Z</time>
      </trkpt>
      <trkpt lat="42.44049" lon="0.04515">
        <ele>731.5</ele>
        <time>2016-07-31T07:54:08Z</time>
      </trkpt>
      <trkpt lat="42.44052" lon="0.04517">
        <ele>731.2</ele>
        <time>2016-07-31T07:54:09Z</time>
      </trkpt>
      <trkpt lat="42.44054" lon="0.04518">
        <ele>731</ele>
        <time>2016-07-31T07:54:10Z</time>
      </trkpt>
      <trkpt lat="42.44059" lon="0.04521">
        <ele>730.5</ele>
        <time>2016-07-31T07:54:12Z</time>
      </trkpt>
      <trkpt lat="42.44064" lon="0.04523">
        <ele>730.1</ele>
        <time>2016-07-31T07:54:14Z</time>
      </trkpt>
      <trkpt lat="42.44069" lon="0.04525">
        <ele>729.7</ele>
        <time>2016-07-31T07:54:16Z</time>
      </trkpt>
      <trkpt lat="42.44073" lon="0.04527">
        <ele>729.4</ele>
        <time>2016-07-31T07:54:18Z</time>
      </trkpt>
      <trkpt lat="42.44078" lon="0.04528">
        <ele>729.3</ele>
        <time>2016-07-31T07:54:20Z</time>
      </trkpt>
      <trkpt lat="42.44083" lon="0.04528">
        <ele>729.7</ele>
        <time>2016-07-31T07:54:22Z</time>
      </trkpt>
      <trkpt lat="42.44088" lon="0.04527">
        <ele>730.3</ele>
        <time>2016-07-31T07:54:24Z</time>
      </trkpt>
      <trkpt lat="42.44093" lon="0.04526">
        <ele>730.9</ele>
        <time>2016-07-31T07:54:26Z</time>
      </trkpt>
      <trkpt lat="42.44098" lon="0.04524">
        <ele>731.6</ele>
        <time>2016-07-31T07:54:28Z</time>
      </trkpt>
      <trkpt lat="42.44103" lon="0.04523">
        <ele>732.2</ele>
        <time>2016-07-31T07:54:30Z</time>
      </trkpt>
      <trkpt lat="42.44108" lon="0.04523">
        <ele>732.7</ele>
        <time>2016-07-31T07:54:32Z</time>
      </trkpt>
      <trkpt lat="42.44113" lon="0.04521">
        <ele>733.4</ele>
        <time>2016-07-31T07:54:34Z</time>
      </trkpt>
      <trkpt lat="42.44117" lon="0.04519">
        <ele>734.4</ele>
        <time>2016-07-31T07:54:36Z</time>
      </trkpt>
      <trkpt lat="42.44122" lon="0.04517">
        <ele>735.3</ele>
        <time>2016-07-31T07:54:38Z</time>
      </trkpt>
      <trkpt lat="42.44127" lon="0.04516">
        <ele>736.1</ele>
        <time>2016-07-31T07:54:40Z</time>
      </trkpt>
      <trkpt lat="42.44132" lon="0.04514">
        <ele>736.8</ele>
        <time>2016-07-31T07:54:42Z</time>
      </trkpt>
      <trkpt lat="42.44137" lon="0.04513">
        <ele>737.4</ele>
        <time>2016-07-31T07:54:44Z</time>
      </trkpt>
      <trkpt lat="42.44142" lon="0.04512">
        <ele>738.2</ele>
        <time>2016-07-31T07:54:46Z</time>
      </trkpt>
      <trkpt lat="42.44147" lon="0.0451">
        <ele>738.9</ele>
        <time>2016-07-31T07:54:48Z</time>
      </trkpt>
      <trkpt lat="42.4415" lon="0.04509">
        <ele>739.3</ele>
        <time>2016-07-31T07:54:49Z</time>
      </trkpt>
      <trkpt lat="42.44155" lon="0.04508">
        <ele>740.1</ele>
        <time>2016-07-31T07:54:51Z</time>
      </trkpt>
      <trkpt lat="42.4416" lon="0.04506">
        <ele>740.9</ele>
        <time>2016-07-31T07:54:53Z</time>
      </trkpt>
      <trkpt lat="42.44164" lon="0.04504">
        <ele>741.6</ele>
        <time>2016-07-31T07:54:55Z</time>
      </trkpt>
      <trkpt lat="42.44169" lon="0.04503">
        <ele>742.4</ele>
        <time>2016-07-31T07:54:57Z</time>
      </trkpt>
      <trkpt lat="42.44174" lon="0.04501">
        <ele>743.3</ele>
        <time>2016-07-31T07:54:59Z</time>
      </trkpt>
      <trkpt lat="42.44178" lon="0.04499">
        <ele>744.1</ele>
        <time>2016-07-31T07:55:01Z</time>
      </trkpt>
      <trkpt lat="42.44183" lon="0.04497">
        <ele>744.8</ele>
        <time>2016-07-31T07:55:03Z</time>
      </trkpt>
      <trkpt lat="42.44188" lon="0.04495">
        <ele>745.7</ele>
        <time>2016-07-31T07:55:05Z</time>
      </trkpt>
      <trkpt lat="42.44193" lon="0.04494">
        <ele>746.5</ele>
        <time>2016-07-31T07:55:07Z</time>
      </trkpt>
      <trkpt lat="42.44197" lon="0.04492">
        <ele>747.1</ele>
        <time>2016-07-31T07:55:09Z</time>
      </trkpt>
      <trkpt lat="42.44202" lon="0.04491">
        <ele>747.9</ele>
        <time>2016-07-31T07:55:11Z</time>
      </trkpt>
      <trkpt lat="42.44207" lon="0.04489">
        <ele>748.7</ele>
        <time>2016-07-31T07:55:13Z</time>
      </trkpt>
      <trkpt lat="42.44211" lon="0.04487">
        <ele>749.2</ele>
        <time>2016-07-31T07:55:15Z</time>
      </trkpt>
      <trkpt lat="42.44216" lon="0.04486">
        <ele>749.6</ele>
        <time>2016-07-31T07:55:17Z</time>
      </trkpt>
      <trkpt lat="42.4422" lon="0.04484">
        <ele>750.1</ele>
        <time>2016-07-31T07:55:19Z</time>
      </trkpt>
      <trkpt lat="42.44224" lon="0.04483">
        <ele>750.6</ele>
        <time>2016-07-31T07:55:21Z</time>
      </trkpt>
      <trkpt lat="42.44229" lon="0.04481">
        <ele>751</ele>
        <time>2016-07-31T07:55:23Z</time>
      </trkpt>
      <trkpt lat="42.44233" lon="0.0448">
        <ele>751.5</ele>
        <time>2016-07-31T07:55:25Z</time>
      </trkpt>
      <trkpt lat="42.44238" lon="0.04478">
        <ele>752.1</ele>
        <time>2016-07-31T07:55:27Z</time>
      </trkpt>
      <trkpt lat="42.44243" lon="0.04476">
        <ele>752.5</ele>
        <time>2016-07-31T07:55:29Z</time>
      </trkpt>
      <trkpt lat="42.44248" lon="0.04476">
        <ele>752.7</ele>
        <time>2016-07-31T07:55:31Z</time>
      </trkpt>
      <trkpt lat="42.44253" lon="0.04476">
        <ele>752.7</ele>
        <time>2016-07-31T07:55:33Z</time>
      </trkpt>
      <trkpt lat="42.44257" lon="0.04476">
        <ele>752.5</ele>
        <time>2016-07-31T07:55:35Z</time>
      </trkpt>
      <trkpt lat="42.4426" lon="0.04476">
        <ele>752.3</ele>
        <time>2016-07-31T07:55:36Z</time>
      </trkpt>
      <trkpt lat="42.44262" lon="0.04477">
        <ele>752.1</ele>
        <time>2016-07-31T07:55:37Z</time>
      </trkpt>
      <trkpt lat="42.44268" lon="0.04478">
        <ele>751.8</ele>
        <time>2016-07-31T07:55:39Z</time>
      </trkpt>
      <trkpt lat="42.44272" lon="0.04478">
        <ele>751.7</ele>
        <time>2016-07-31T07:55:41Z</time>
      </trkpt>
      <trkpt lat="42.44277" lon="0.04478">
        <ele>751.5</ele>
        <time>2016-07-31T07:55:43Z</time>
      </trkpt>
      <trkpt lat="42.44281" lon="0.04479">
        <ele>751.3</ele>
        <time>2016-07-31T07:55:45Z</time>
      </trkpt>
      <trkpt lat="42.44286" lon="0.04479">
        <ele>751.1</ele>
        <time>2016-07-31T07:55:47Z</time>
      </trkpt>
      <trkpt lat="42.44289" lon="0.0448">
        <ele>750.9</ele>
        <time>2016-07-31T07:55:48Z</time>
      </trkpt>
      <trkpt lat="42.44294" lon="0.0448">
        <ele>750.8</ele>
        <time>2016-07-31T07:55:50Z</time>
      </trkpt>
      <trkpt lat="42.44299" lon="0.0448">
        <ele>750.9</ele>
        <time>2016-07-31T07:55:52Z</time>
      </trkpt>
      <trkpt lat="42.44304" lon="0.0448">
        <ele>751.2</ele>
        <time>2016-07-31T07:55:54Z</time>
      </trkpt>
      <trkpt lat="42.44309" lon="0.0448">
        <ele>751.6</ele>
        <time>2016-07-31T07:55:56Z</time>
      </trkpt>
      <trkpt lat="42.44314" lon="0.04479">
        <ele>751.9</ele>
        <time>2016-07-31T07:55:58Z</time>
      </trkpt>
      <trkpt lat="42.44319" lon="0.04479">
        <ele>752.2</ele>
        <time>2016-07-31T07:56:00Z</time>
      </trkpt>
      <trkpt lat="42.44324" lon="0.04479">
        <ele>752.6</ele>
        <time>2016-07-31T07:56:02Z</time>
      </trkpt>
      <trkpt lat="42.44329" lon="0.04478">
        <ele>753</ele>
        <time>2016-07-31T07:56:04Z</time>
      </trkpt>
      <trkpt lat="42.44334" lon="0.04477">
        <ele>753.6</ele>
        <time>2016-07-31T07:56:06Z</time>
      </trkpt>
      <trkpt lat="42.44339" lon="0.04476">
        <ele>754.3</ele>
        <time>2016-07-31T07:56:08Z</time>
      </trkpt>
      <trkpt lat="42.44343" lon="0.04474">
        <ele>755</ele>
        <time>2016-07-31T07:56:10Z</time>
      </trkpt>
      <trkpt lat="42.44348" lon="0.04473">
        <ele>755.6</ele>
        <time>2016-07-31T07:56:12Z</time>
      </trkpt>
      <trkpt lat="42.44353" lon="0.04473">
        <ele>756.1</ele>
        <time>2016-07-31T07:56:14Z</time>
      </trkpt>
      <trkpt lat="42.44357" lon="0.04472">
        <ele>756.5</ele>
        <time>2016-07-31T07:56:16Z</time>
      </trkpt>
      <trkpt lat="42.44363" lon="0.04471">
        <ele>757.1</ele>
        <time>2016-07-31T07:56:18Z</time>
      </trkpt>
      <trkpt lat="42.44368" lon="0.04471">
        <ele>757.5</ele>
        <time>2016-07-31T07:56:20Z</time>
      </trkpt>
      <trkpt lat="42.44373" lon="0.0447">
        <ele>758</ele>
        <time>2016-07-31T07:56:22Z</time>
      </trkpt>
      <trkpt lat="42.44378" lon="0.0447">
        <ele>758</ele>
        <time>2016-07-31T07:56:24Z</time>
      </trkpt>
      <trkpt lat="42.44383" lon="0.0447">
        <ele>757.9</ele>
        <time>2016-07-31T07:56:26Z</time>
      </trkpt>
      <trkpt lat="42.44388" lon="0.0447">
        <ele>757.9</ele>
        <time>2016-07-31T07:56:28Z</time>
      </trkpt>
      <trkpt lat="42.44392" lon="0.0447">
        <ele>757.7</ele>
        <time>2016-07-31T07:56:30Z</time>
      </trkpt>
      <trkpt lat="42.44397" lon="0.0447">
        <ele>757.6</ele>
        <time>2016-07-31T07:56:32Z</time>
      </trkpt>
      <trkpt lat="42.44402" lon="0.0447">
        <ele>757.4</ele>
        <time>2016-07-31T07:56:34Z</time>
      </trkpt>
      <trkpt lat="42.44407" lon="0.04471">
        <ele>756.9</ele>
        <time>2016-07-31T07:56:36Z</time>
      </trkpt>
      <trkpt lat="42.44412" lon="0.04471">
        <ele>756.8</ele>
        <time>2016-07-31T07:56:38Z</time>
      </trkpt>
      <trkpt lat="42.44415" lon="0.0447">
        <ele>756.8</ele>
        <time>2016-07-31T07:56:39Z</time>
      </trkpt>
      <trkpt lat="42.4442" lon="0.0447">
        <ele>757</ele>
        <time>2016-07-31T07:56:41Z</time>
      </trkpt>
      <trkpt lat="42.44425" lon="0.04468">
        <ele>757.4</ele>
        <time>2016-07-31T07:56:43Z</time>
      </trkpt>
      <trkpt lat="42.44428" lon="0.04468">
        <ele>757.5</ele>
        <time>2016-07-31T07:56:44Z</time>
      </trkpt>
      <trkpt lat="42.44431" lon="0.04467">
        <ele>757.8</ele>
        <time>2016-07-31T07:56:45Z</time>
      </trkpt>
      <trkpt lat="42.44434" lon="0.04465">
        <ele>758.2</ele>
        <time>2016-07-31T07:56:46Z</time>
      </trkpt>
      <trkpt lat="42.44436" lon="0.04464">
        <ele>758.6</ele>
        <time>2016-07-31T07:56:47Z</time>
      </trkpt>
      <trkpt lat="42.44439" lon="0.04463">
        <ele>759.1</ele>
        <time>2016-07-31T07:56:48Z</time>
      </trkpt>
      <trkpt lat="42.44443" lon="0.04459">
        <ele>760.4</ele>
        <time>2016-07-31T07:56:50Z</time>
      </trkpt>
      <trkpt lat="42.44446" lon="0.04456">
        <ele>761.1</ele>
        <time>2016-07-31T07:56:51Z</time>
      </trkpt>
      <trkpt lat="42.44448" lon="0.04453">
        <ele>761.7</ele>
        <time>2016-07-31T07:56:52Z</time>
      </trkpt>
      <trkpt lat="42.44451" lon="0.04448">
        <ele>763</ele>
        <time>2016-07-31T07:56:54Z</time>
      </trkpt>
      <trkpt lat="42.44453" lon="0.04442">
        <ele>764.7</ele>
        <time>2016-07-31T07:56:56Z</time>
      </trkpt>
      <trkpt lat="42.44453" lon="0.04435">
        <ele>766.5</ele>
        <time>2016-07-31T07:56:58Z</time>
      </trkpt>
      <trkpt lat="42.44453" lon="0.04428">
        <ele>768.3</ele>
        <time>2016-07-31T07:57:00Z</time>
      </trkpt>
      <trkpt lat="42.44452" lon="0.04422">
        <ele>770</ele>
        <time>2016-07-31T07:57:02Z</time>
      </trkpt>
      <trkpt lat="42.44449" lon="0.04416">
        <ele>771.7</ele>
        <time>2016-07-31T07:57:04Z</time>
      </trkpt>
      <trkpt lat="42.44445" lon="0.04411">
        <ele>773.3</ele>
        <time>2016-07-31T07:57:06Z</time>
      </trkpt>
      <trkpt lat="42.44444" lon="0.04408">
        <ele>774.2</ele>
        <time>2016-07-31T07:57:07Z</time>
      </trkpt>
      <trkpt lat="42.4444" lon="0.04404">
        <ele>775.6</ele>
        <time>2016-07-31T07:57:09Z</time>
      </trkpt>
      <trkpt lat="42.44435" lon="0.04401">
        <ele>776.6</ele>
        <time>2016-07-31T07:57:11Z</time>
      </trkpt>
      <trkpt lat="42.4443" lon="0.04399">
        <ele>777.3</ele>
        <time>2016-07-31T07:57:13Z</time>
      </trkpt>
      <trkpt lat="42.44428" lon="0.04399">
        <ele>777.6</ele>
        <time>2016-07-31T07:57:14Z</time>
      </trkpt>
      <trkpt lat="42.44425" lon="0.04399">
        <ele>777.7</ele>
        <time>2016-07-31T07:57:15Z</time>
      </trkpt>
      <trkpt lat="42.44422" lon="0.044">
        <ele>777.6</ele>
        <time>2016-07-31T07:57:16Z</time>
      </trkpt>
      <trkpt lat="42.44419" lon="0.04401">
        <ele>777.4</ele>
        <time>2016-07-31T07:57:17Z</time>
      </trkpt>
      <trkpt lat="42.44414" lon="0.04405">
        <ele>776.8</ele>
        <time>2016-07-31T07:57:19Z</time>
      </trkpt>
      <trkpt lat="42.44412" lon="0.04407">
        <ele>776.4</ele>
        <time>2016-07-31T07:57:20Z</time>
      </trkpt>
      <trkpt lat="42.44409" lon="0.04409">
        <ele>776</ele>
        <time>2016-07-31T07:57:21Z</time>
      </trkpt>
      <trkpt lat="42.44407" lon="0.04411">
        <ele>775.6</ele>
        <time>2016-07-31T07:57:22Z</time>
      </trkpt>
      <trkpt lat="42.44402" lon="0.04414">
        <ele>774.7</ele>
        <time>2016-07-31T07:57:24Z</time>
      </trkpt>
      <trkpt lat="42.44397" lon="0.04418">
        <ele>773.8</ele>
        <time>2016-07-31T07:57:26Z</time>
      </trkpt>
      <trkpt lat="42.44395" lon="0.0442">
        <ele>773.4</ele>
        <time>2016-07-31T07:57:27Z</time>
      </trkpt>
      <trkpt lat="42.44393" lon="0.04422">
        <ele>773</ele>
        <time>2016-07-31T07:57:28Z</time>
      </trkpt>
      <trkpt lat="42.44388" lon="0.04425">
        <ele>772.3</ele>
        <time>2016-07-31T07:57:30Z</time>
      </trkpt>
      <trkpt lat="42.44383" lon="0.04428">
        <ele>771.6</ele>
        <time>2016-07-31T07:57:32Z</time>
      </trkpt>
      <trkpt lat="42.44378" lon="0.0443">
        <ele>771.3</ele>
        <time>2016-07-31T07:57:34Z</time>
      </trkpt>
      <trkpt lat="42.44373" lon="0.04431">
        <ele>771.1</ele>
        <time>2016-07-31T07:57:36Z</time>
      </trkpt>
      <trkpt lat="42.44368" lon="0.04432">
        <ele>770.7</ele>
        <time>2016-07-31T07:57:38Z</time>
      </trkpt>
      <trkpt lat="42.44362" lon="0.0443">
        <ele>770.8</ele>
        <time>2016-07-31T07:57:40Z</time>
      </trkpt>
      <trkpt lat="42.4436" lon="0.04429">
        <ele>771.1</ele>
        <time>2016-07-31T07:57:41Z</time>
      </trkpt>
      <trkpt lat="42.44357" lon="0.04428">
        <ele>771.4</ele>
        <time>2016-07-31T07:57:42Z</time>
      </trkpt>
      <trkpt lat="42.44354" lon="0.04426">
        <ele>771.7</ele>
        <time>2016-07-31T07:57:43Z</time>
      </trkpt>
      <trkpt lat="42.44352" lon="0.04425">
        <ele>772</ele>
        <time>2016-07-31T07:57:44Z</time>
      </trkpt>
      <trkpt lat="42.44349" lon="0.04423">
        <ele>772.3</ele>
        <time>2016-07-31T07:57:45Z</time>
      </trkpt>
      <trkpt lat="42.44344" lon="0.04421">
        <ele>772.7</ele>
        <time>2016-07-31T07:57:47Z</time>
      </trkpt>
      <trkpt lat="42.44339" lon="0.0442">
        <ele>772.9</ele>
        <time>2016-07-31T07:57:49Z</time>
      </trkpt>
      <trkpt lat="42.44334" lon="0.04418">
        <ele>773.3</ele>
        <time>2016-07-31T07:57:51Z</time>
      </trkpt>
      <trkpt lat="42.44329" lon="0.04416">
        <ele>773.7</ele>
        <time>2016-07-31T07:57:53Z</time>
      </trkpt>
      <trkpt lat="42.44324" lon="0.04415">
        <ele>774</ele>
        <time>2016-07-31T07:57:55Z</time>
      </trkpt>
      <trkpt lat="42.44319" lon="0.04413">
        <ele>774.4</ele>
        <time>2016-07-31T07:57:57Z</time>
      </trkpt>
      <trkpt lat="42.44317" lon="0.04412">
        <ele>774.6</ele>
        <time>2016-07-31T07:57:58Z</time>
      </trkpt>
      <trkpt lat="42.44312" lon="0.0441">
        <ele>774.9</ele>
        <time>2016-07-31T07:58:00Z</time>
      </trkpt>
      <trkpt lat="42.44306" lon="0.04409">
        <ele>775.3</ele>
        <time>2016-07-31T07:58:02Z</time>
      </trkpt>
      <trkpt lat="42.44302" lon="0.04407">
        <ele>775.7</ele>
        <time>2016-07-31T07:58:04Z</time>
      </trkpt>
      <trkpt lat="42.44297" lon="0.04405">
        <ele>776</ele>
        <time>2016-07-31T07:58:06Z</time>
      </trkpt>
      <trkpt lat="42.44294" lon="0.04405">
        <ele>776.1</ele>
        <time>2016-07-31T07:58:07Z</time>
      </trkpt>
      <trkpt lat="42.44291" lon="0.04404">
        <ele>776.3</ele>
        <time>2016-07-31T07:58:08Z</time>
      </trkpt>
      <trkpt lat="42.44286" lon="0.04402">
        <ele>777</ele>
        <time>2016-07-31T07:58:10Z</time>
      </trkpt>
      <trkpt lat="42.44281" lon="0.04401">
        <ele>777.7</ele>
        <time>2016-07-31T07:58:12Z</time>
      </trkpt>
      <trkpt lat="42.44277" lon="0.04399">
        <ele>778.5</ele>
        <time>2016-07-31T07:58:14Z</time>
      </trkpt>
      <trkpt lat="42.44272" lon="0.04398">
        <ele>778.9</ele>
        <time>2016-07-31T07:58:16Z</time>
      </trkpt>
      <trkpt lat="42.44267" lon="0.04398">
        <ele>779.1</ele>
        <time>2016-07-31T07:58:18Z</time>
      </trkpt>
      <trkpt lat="42.44262" lon="0.04398">
        <ele>779.3</ele>
        <time>2016-07-31T07:58:20Z</time>
      </trkpt>
      <trkpt lat="42.44257" lon="0.04397">
        <ele>779.7</ele>
        <time>2016-07-31T07:58:22Z</time>
      </trkpt>
      <trkpt lat="42.44252" lon="0.04395">
        <ele>780.3</ele>
        <time>2016-07-31T07:58:24Z</time>
      </trkpt>
      <trkpt lat="42.44247" lon="0.04394">
        <ele>781.1</ele>
        <time>2016-07-31T07:58:26Z</time>
      </trkpt>
      <trkpt lat="42.44243" lon="0.04392">
        <ele>782</ele>
        <time>2016-07-31T07:58:28Z</time>
      </trkpt>
      <trkpt lat="42.44238" lon="0.04389">
        <ele>782.9</ele>
        <time>2016-07-31T07:58:30Z</time>
      </trkpt>
      <trkpt lat="42.44233" lon="0.04387">
        <ele>783.7</ele>
        <time>2016-07-31T07:58:32Z</time>
      </trkpt>
      <trkpt lat="42.44228" lon="0.04386">
        <ele>784.4</ele>
        <time>2016-07-31T07:58:34Z</time>
      </trkpt>
      <trkpt lat="42.44223" lon="0.04385">
        <ele>785</ele>
        <time>2016-07-31T07:58:36Z</time>
      </trkpt>
      <trkpt lat="42.44218" lon="0.04383">
        <ele>785.7</ele>
        <time>2016-07-31T07:58:38Z</time>
      </trkpt>
      <trkpt lat="42.44213" lon="0.04382">
        <ele>786.4</ele>
        <time>2016-07-31T07:58:40Z</time>
      </trkpt>
      <trkpt lat="42.44208" lon="0.04379">
        <ele>787.4</ele>
        <time>2016-07-31T07:58:42Z</time>
      </trkpt>
      <trkpt lat="42.44203" lon="0.04377">
        <ele>788.1</ele>
        <time>2016-07-31T07:58:44Z</time>
      </trkpt>
      <trkpt lat="42.44198" lon="0.04375">
        <ele>788.5</ele>
        <time>2016-07-31T07:58:46Z</time>
      </trkpt>
      <trkpt lat="42.44196" lon="0.04374">
        <ele>788.6</ele>
        <time>2016-07-31T07:58:47Z</time>
      </trkpt>
      <trkpt lat="42.44193" lon="0.04374">
        <ele>788.8</ele>
        <time>2016-07-31T07:58:48Z</time>
      </trkpt>
      <trkpt lat="42.4419" lon="0.04373">
        <ele>789</ele>
        <time>2016-07-31T07:58:49Z</time>
      </trkpt>
      <trkpt lat="42.44186" lon="0.04371">
        <ele>789.4</ele>
        <time>2016-07-31T07:58:51Z</time>
      </trkpt>
      <trkpt lat="42.44181" lon="0.04369">
        <ele>789.8</ele>
        <time>2016-07-31T07:58:53Z</time>
      </trkpt>
      <trkpt lat="42.44176" lon="0.04367">
        <ele>790.3</ele>
        <time>2016-07-31T07:58:55Z</time>
      </trkpt>
      <trkpt lat="42.44171" lon="0.04365">
        <ele>790.7</ele>
        <time>2016-07-31T07:58:57Z</time>
      </trkpt>
      <trkpt lat="42.44166" lon="0.04364">
        <ele>790.9</ele>
        <time>2016-07-31T07:58:59Z</time>
      </trkpt>
      <trkpt lat="42.44162" lon="0.04362">
        <ele>791.3</ele>
        <time>2016-07-31T07:59:01Z</time>
      </trkpt>
      <trkpt lat="42.44157" lon="0.0436">
        <ele>791.8</ele>
        <time>2016-07-31T07:59:03Z</time>
      </trkpt>
      <trkpt lat="42.44153" lon="0.04358">
        <ele>792.1</ele>
        <time>2016-07-31T07:59:05Z</time>
      </trkpt>
      <trkpt lat="42.44148" lon="0.04357">
        <ele>792.3</ele>
        <time>2016-07-31T07:59:07Z</time>
      </trkpt>
      <trkpt lat="42.44143" lon="0.04355">
        <ele>792.6</ele>
        <time>2016-07-31T07:59:09Z</time>
      </trkpt>
      <trkpt lat="42.44138" lon="0.04354">
        <ele>792.9</ele>
        <time>2016-07-31T07:59:11Z</time>
      </trkpt>
      <trkpt lat="42.44133" lon="0.04352">
        <ele>793.2</ele>
        <time>2016-07-31T07:59:13Z</time>
      </trkpt>
      <trkpt lat="42.44128" lon="0.04349">
        <ele>793.8</ele>
        <time>2016-07-31T07:59:15Z</time>
      </trkpt>
      <trkpt lat="42.44124" lon="0.04348">
        <ele>794</ele>
        <time>2016-07-31T07:59:17Z</time>
      </trkpt>
      <trkpt lat="42.44119" lon="0.04346">
        <ele>793.8</ele>
        <time>2016-07-31T07:59:19Z</time>
      </trkpt>
      <trkpt lat="42.44114" lon="0.04345">
        <ele>793.6</ele>
        <time>2016-07-31T07:59:21Z</time>
      </trkpt>
      <trkpt lat="42.44109" lon="0.04344">
        <ele>793.3</ele>
        <time>2016-07-31T07:59:23Z</time>
      </trkpt>
      <trkpt lat="42.44105" lon="0.04342">
        <ele>793.2</ele>
        <time>2016-07-31T07:59:25Z</time>
      </trkpt>
      <trkpt lat="42.441" lon="0.04341">
        <ele>793.1</ele>
        <time>2016-07-31T07:59:27Z</time>
      </trkpt>
      <trkpt lat="42.44095" lon="0.0434">
        <ele>792.9</ele>
        <time>2016-07-31T07:59:29Z</time>
      </trkpt>
      <trkpt lat="42.44091" lon="0.04338">
        <ele>792.8</ele>
        <time>2016-07-31T07:59:31Z</time>
      </trkpt>
      <trkpt lat="42.44086" lon="0.04336">
        <ele>792.8</ele>
        <time>2016-07-31T07:59:33Z</time>
      </trkpt>
      <trkpt lat="42.44081" lon="0.04334">
        <ele>792.9</ele>
        <time>2016-07-31T07:59:35Z</time>
      </trkpt>
      <trkpt lat="42.44077" lon="0.04332">
        <ele>793</ele>
        <time>2016-07-31T07:59:37Z</time>
      </trkpt>
      <trkpt lat="42.44072" lon="0.0433">
        <ele>793.2</ele>
        <time>2016-07-31T07:59:39Z</time>
      </trkpt>
      <trkpt lat="42.44069" lon="0.04329">
        <ele>793.3</ele>
        <time>2016-07-31T07:59:40Z</time>
      </trkpt>
      <trkpt lat="42.44066" lon="0.04328">
        <ele>793.3</ele>
        <time>2016-07-31T07:59:41Z</time>
      </trkpt>
      <trkpt lat="42.44062" lon="0.04325">
        <ele>793.6</ele>
        <time>2016-07-31T07:59:43Z</time>
      </trkpt>
      <trkpt lat="42.44057" lon="0.04323">
        <ele>793.7</ele>
        <time>2016-07-31T07:59:45Z</time>
      </trkpt>
      <trkpt lat="42.44052" lon="0.04321">
        <ele>793.9</ele>
        <time>2016-07-31T07:59:47Z</time>
      </trkpt>
      <trkpt lat="42.44048" lon="0.04319">
        <ele>794.1</ele>
        <time>2016-07-31T07:59:49Z</time>
      </trkpt>
      <trkpt lat="42.44043" lon="0.04318">
        <ele>794.1</ele>
        <time>2016-07-31T07:59:51Z</time>
      </trkpt>
      <trkpt lat="42.44038" lon="0.04317">
        <ele>793.6</ele>
        <time>2016-07-31T07:59:53Z</time>
      </trkpt>
      <trkpt lat="42.44033" lon="0.04315">
        <ele>793.4</ele>
        <time>2016-07-31T07:59:55Z</time>
      </trkpt>
      <trkpt lat="42.44029" lon="0.04313">
        <ele>793.3</ele>
        <time>2016-07-31T07:59:57Z</time>
      </trkpt>
      <trkpt lat="42.44025" lon="0.0431">
        <ele>793.3</ele>
        <time>2016-07-31T07:59:59Z</time>
      </trkpt>
      <trkpt lat="42.4402" lon="0.04308">
        <ele>793.4</ele>
        <time>2016-07-31T08:00:01Z</time>
      </trkpt>
      <trkpt lat="42.44016" lon="0.04305">
        <ele>793.5</ele>
        <time>2016-07-31T08:00:03Z</time>
      </trkpt>
      <trkpt lat="42.44012" lon="0.04302">
        <ele>793.8</ele>
        <time>2016-07-31T08:00:05Z</time>
      </trkpt>
      <trkpt lat="42.44008" lon="0.04299">
        <ele>794.3</ele>
        <time>2016-07-31T08:00:07Z</time>
      </trkpt>
      <trkpt lat="42.44004" lon="0.04295">
        <ele>795.1</ele>
        <time>2016-07-31T08:00:09Z</time>
      </trkpt>
      <trkpt lat="42.44" lon="0.04291">
        <ele>796</ele>
        <time>2016-07-31T08:00:11Z</time>
      </trkpt>
      <trkpt lat="42.43996" lon="0.04287">
        <ele>796.8</ele>
        <time>2016-07-31T08:00:13Z</time>
      </trkpt>
      <trkpt lat="42.43992" lon="0.04283">
        <ele>797.4</ele>
        <time>2016-07-31T08:00:15Z</time>
      </trkpt>
      <trkpt lat="42.43988" lon="0.0428">
        <ele>798</ele>
        <time>2016-07-31T08:00:17Z</time>
      </trkpt>
      <trkpt lat="42.43984" lon="0.04277">
        <ele>798.7</ele>
        <time>2016-07-31T08:00:19Z</time>
      </trkpt>
      <trkpt lat="42.4398" lon="0.04273">
        <ele>799.5</ele>
        <time>2016-07-31T08:00:21Z</time>
      </trkpt>
      <trkpt lat="42.43976" lon="0.04269">
        <ele>800.4</ele>
        <time>2016-07-31T08:00:23Z</time>
      </trkpt>
      <trkpt lat="42.43972" lon="0.04266">
        <ele>801.3</ele>
        <time>2016-07-31T08:00:25Z</time>
      </trkpt>
      <trkpt lat="42.43968" lon="0.04262">
        <ele>802.2</ele>
        <time>2016-07-31T08:00:27Z</time>
      </trkpt>
      <trkpt lat="42.43964" lon="0.04258">
        <ele>803.2</ele>
        <time>2016-07-31T08:00:29Z</time>
      </trkpt>
      <trkpt lat="42.4396" lon="0.04255">
        <ele>804.2</ele>
        <time>2016-07-31T08:00:31Z</time>
      </trkpt>
      <trkpt lat="42.43956" lon="0.04251">
        <ele>805.1</ele>
        <time>2016-07-31T08:00:33Z</time>
      </trkpt>
      <trkpt lat="42.43952" lon="0.04248">
        <ele>805.9</ele>
        <time>2016-07-31T08:00:35Z</time>
      </trkpt>
      <trkpt lat="42.43948" lon="0.04244">
        <ele>806.9</ele>
        <time>2016-07-31T08:00:37Z</time>
      </trkpt>
      <trkpt lat="42.43945" lon="0.0424">
        <ele>807.9</ele>
        <time>2016-07-31T08:00:39Z</time>
      </trkpt>
      <trkpt lat="42.43941" lon="0.04236">
        <ele>808.8</ele>
        <time>2016-07-31T08:00:41Z</time>
      </trkpt>
      <trkpt lat="42.43936" lon="0.04233">
        <ele>809.5</ele>
        <time>2016-07-31T08:00:43Z</time>
      </trkpt>
      <trkpt lat="42.43932" lon="0.04229">
        <ele>810.2</ele>
        <time>2016-07-31T08:00:45Z</time>
      </trkpt>
      <trkpt lat="42.43928" lon="0.04226">
        <ele>811</ele>
        <time>2016-07-31T08:00:47Z</time>
      </trkpt>
      <trkpt lat="42.43924" lon="0.04222">
        <ele>811.6</ele>
        <time>2016-07-31T08:00:49Z</time>
      </trkpt>
      <trkpt lat="42.43919" lon="0.04219">
        <ele>812</ele>
        <time>2016-07-31T08:00:51Z</time>
      </trkpt>
      <trkpt lat="42.43915" lon="0.04216">
        <ele>812.6</ele>
        <time>2016-07-31T08:00:53Z</time>
      </trkpt>
      <trkpt lat="42.43911" lon="0.04213">
        <ele>813.2</ele>
        <time>2016-07-31T08:00:55Z</time>
      </trkpt>
      <trkpt lat="42.43907" lon="0.0421">
        <ele>813.7</ele>
        <time>2016-07-31T08:00:57Z</time>
      </trkpt>
      <trkpt lat="42.43903" lon="0.04206">
        <ele>814.5</ele>
        <time>2016-07-31T08:00:59Z</time>
      </trkpt>
      <trkpt lat="42.43899" lon="0.04203">
        <ele>815</ele>
        <time>2016-07-31T08:01:01Z</time>
      </trkpt>
      <trkpt lat="42.43895" lon="0.042">
        <ele>815</ele>
        <time>2016-07-31T08:01:03Z</time>
      </trkpt>
      <trkpt lat="42.43891" lon="0.04198">
        <ele>815.1</ele>
        <time>2016-07-31T08:01:05Z</time>
      </trkpt>
      <trkpt lat="42.43887" lon="0.04194">
        <ele>815.7</ele>
        <time>2016-07-31T08:01:07Z</time>
      </trkpt>
      <trkpt lat="42.43883" lon="0.04191">
        <ele>816.3</ele>
        <time>2016-07-31T08:01:09Z</time>
      </trkpt>
      <trkpt lat="42.43879" lon="0.04187">
        <ele>816.7</ele>
        <time>2016-07-31T08:01:11Z</time>
      </trkpt>
      <trkpt lat="42.43875" lon="0.04183">
        <ele>817.4</ele>
        <time>2016-07-31T08:01:13Z</time>
      </trkpt>
      <trkpt lat="42.43871" lon="0.04178">
        <ele>818.4</ele>
        <time>2016-07-31T08:01:15Z</time>
      </trkpt>
      <trkpt lat="42.43868" lon="0.04174">
        <ele>819.2</ele>
        <time>2016-07-31T08:01:17Z</time>
      </trkpt>
      <trkpt lat="42.43863" lon="0.0417">
        <ele>819.7</ele>
        <time>2016-07-31T08:01:19Z</time>
      </trkpt>
      <trkpt lat="42.43859" lon="0.04167">
        <ele>819.9</ele>
        <time>2016-07-31T08:01:21Z</time>
      </trkpt>
      <trkpt lat="42.43854" lon="0.04164">
        <ele>819.7</ele>
        <time>2016-07-31T08:01:23Z</time>
      </trkpt>
      <trkpt lat="42.43849" lon="0.04162">
        <ele>819.4</ele>
        <time>2016-07-31T08:01:25Z</time>
      </trkpt>
      <trkpt lat="42.43844" lon="0.0416">
        <ele>818.9</ele>
        <time>2016-07-31T08:01:27Z</time>
      </trkpt>
      <trkpt lat="42.4384" lon="0.04159">
        <ele>818.3</ele>
        <time>2016-07-31T08:01:29Z</time>
      </trkpt>
      <trkpt lat="42.43835" lon="0.04157">
        <ele>817.9</ele>
        <time>2016-07-31T08:01:31Z</time>
      </trkpt>
      <trkpt lat="42.43831" lon="0.04155">
        <ele>817.5</ele>
        <time>2016-07-31T08:01:33Z</time>
      </trkpt>
      <trkpt lat="42.43827" lon="0.04152">
        <ele>817.4</ele>
        <time>2016-07-31T08:01:35Z</time>
      </trkpt>
      <trkpt lat="42.43822" lon="0.04149">
        <ele>816.9</ele>
        <time>2016-07-31T08:01:37Z</time>
      </trkpt>
      <trkpt lat="42.43817" lon="0.04147">
        <ele>816.3</ele>
        <time>2016-07-31T08:01:39Z</time>
      </trkpt>
      <trkpt lat="42.43813" lon="0.04145">
        <ele>815.8</ele>
        <time>2016-07-31T08:01:41Z</time>
      </trkpt>
      <trkpt lat="42.43809" lon="0.04141">
        <ele>815.6</ele>
        <time>2016-07-31T08:01:43Z</time>
      </trkpt>
      <trkpt lat="42.43805" lon="0.04136">
        <ele>816.2</ele>
        <time>2016-07-31T08:01:45Z</time>
      </trkpt>
      <trkpt lat="42.43802" lon="0.0413">
        <ele>816.9</ele>
        <time>2016-07-31T08:01:47Z</time>
      </trkpt>
      <trkpt lat="42.438" lon="0.04124">
        <ele>817.6</ele>
        <time>2016-07-31T08:01:49Z</time>
      </trkpt>
      <trkpt lat="42.43798" lon="0.04121">
        <ele>818</ele>
        <time>2016-07-31T08:01:50Z</time>
      </trkpt>
      <trkpt lat="42.43795" lon="0.04115">
        <ele>818.6</ele>
        <time>2016-07-31T08:01:52Z</time>
      </trkpt>
      <trkpt lat="42.43793" lon="0.04109">
        <ele>819.4</ele>
        <time>2016-07-31T08:01:54Z</time>
      </trkpt>
      <trkpt lat="42.4379" lon="0.04103">
        <ele>820.3</ele>
        <time>2016-07-31T08:01:56Z</time>
      </trkpt>
      <trkpt lat="42.43786" lon="0.04098">
        <ele>821.1</ele>
        <time>2016-07-31T08:01:58Z</time>
      </trkpt>
      <trkpt lat="42.43783" lon="0.04093">
        <ele>821.7</ele>
        <time>2016-07-31T08:02:00Z</time>
      </trkpt>
      <trkpt lat="42.43779" lon="0.04088">
        <ele>822.3</ele>
        <time>2016-07-31T08:02:02Z</time>
      </trkpt>
      <trkpt lat="42.43777" lon="0.04086">
        <ele>822.5</ele>
        <time>2016-07-31T08:02:03Z</time>
      </trkpt>
      <trkpt lat="42.43773" lon="0.04082">
        <ele>822.6</ele>
        <time>2016-07-31T08:02:05Z</time>
      </trkpt>
      <trkpt lat="42.43769" lon="0.04078">
        <ele>822.7</ele>
        <time>2016-07-31T08:02:07Z</time>
      </trkpt>
      <trkpt lat="42.43766" lon="0.04075">
        <ele>822.8</ele>
        <time>2016-07-31T08:02:08Z</time>
      </trkpt>
      <trkpt lat="42.43764" lon="0.04073">
        <ele>822.9</ele>
        <time>2016-07-31T08:02:09Z</time>
      </trkpt>
      <trkpt lat="42.43762" lon="0.04071">
        <ele>822.9</ele>
        <time>2016-07-31T08:02:10Z</time>
      </trkpt>
      <trkpt lat="42.43757" lon="0.04067">
        <ele>822.9</ele>
        <time>2016-07-31T08:02:12Z</time>
      </trkpt>
      <trkpt lat="42.43754" lon="0.04064">
        <ele>823</ele>
        <time>2016-07-31T08:02:14Z</time>
      </trkpt>
      <trkpt lat="42.4375" lon="0.0406">
        <ele>823</ele>
        <time>2016-07-31T08:02:16Z</time>
      </trkpt>
      <trkpt lat="42.43746" lon="0.04058">
        <ele>822.8</ele>
        <time>2016-07-31T08:02:18Z</time>
      </trkpt>
      <trkpt lat="42.43742" lon="0.04054">
        <ele>822.7</ele>
        <time>2016-07-31T08:02:20Z</time>
      </trkpt>
      <trkpt lat="42.43738" lon="0.0405">
        <ele>822.9</ele>
        <time>2016-07-31T08:02:22Z</time>
      </trkpt>
      <trkpt lat="42.43735" lon="0.04046">
        <ele>823</ele>
        <time>2016-07-31T08:02:24Z</time>
      </trkpt>
      <trkpt lat="42.43732" lon="0.04042">
        <ele>823.3</ele>
        <time>2016-07-31T08:02:26Z</time>
      </trkpt>
      <trkpt lat="42.43729" lon="0.04037">
        <ele>823.8</ele>
        <time>2016-07-31T08:02:28Z</time>
      </trkpt>
      <trkpt lat="42.43726" lon="0.04031">
        <ele>824.4</ele>
        <time>2016-07-31T08:02:30Z</time>
      </trkpt>
      <trkpt lat="42.43723" lon="0.04025">
        <ele>825.1</ele>
        <time>2016-07-31T08:02:32Z</time>
      </trkpt>
      <trkpt lat="42.43721" lon="0.0402">
        <ele>825.9</ele>
        <time>2016-07-31T08:02:34Z</time>
      </trkpt>
      <trkpt lat="42.43719" lon="0.04014">
        <ele>826.8</ele>
        <time>2016-07-31T08:02:36Z</time>
      </trkpt>
      <trkpt lat="42.43717" lon="0.04008">
        <ele>827.6</ele>
        <time>2016-07-31T08:02:38Z</time>
      </trkpt>
      <trkpt lat="42.43714" lon="0.04003">
        <ele>828.4</ele>
        <time>2016-07-31T08:02:40Z</time>
      </trkpt>
      <trkpt lat="42.43711" lon="0.03998">
        <ele>829</ele>
        <time>2016-07-31T08:02:42Z</time>
      </trkpt>
      <trkpt lat="42.43707" lon="0.03993">
        <ele>829.4</ele>
        <time>2016-07-31T08:02:44Z</time>
      </trkpt>
      <trkpt lat="42.43704" lon="0.03989">
        <ele>829.5</ele>
        <time>2016-07-31T08:02:46Z</time>
      </trkpt>
      <trkpt lat="42.437" lon="0.03984">
        <ele>829.5</ele>
        <time>2016-07-31T08:02:48Z</time>
      </trkpt>
      <trkpt lat="42.43696" lon="0.0398">
        <ele>829.4</ele>
        <time>2016-07-31T08:02:50Z</time>
      </trkpt>
      <trkpt lat="42.43692" lon="0.03977">
        <ele>829</ele>
        <time>2016-07-31T08:02:52Z</time>
      </trkpt>
      <trkpt lat="42.43688" lon="0.03973">
        <ele>828.5</ele>
        <time>2016-07-31T08:02:54Z</time>
      </trkpt>
      <trkpt lat="42.43684" lon="0.0397">
        <ele>828.2</ele>
        <time>2016-07-31T08:02:56Z</time>
      </trkpt>
      <trkpt lat="42.4368" lon="0.03966">
        <ele>827.5</ele>
        <time>2016-07-31T08:02:58Z</time>
      </trkpt>
      <trkpt lat="42.43678" lon="0.03964">
        <ele>827.1</ele>
        <time>2016-07-31T08:02:59Z</time>
      </trkpt>
      <trkpt lat="42.43675" lon="0.03963">
        <ele>826.6</ele>
        <time>2016-07-31T08:03:00Z</time>
      </trkpt>
      <trkpt lat="42.43671" lon="0.03959">
        <ele>825.9</ele>
        <time>2016-07-31T08:03:02Z</time>
      </trkpt>
      <trkpt lat="42.43667" lon="0.03957">
        <ele>824.9</ele>
        <time>2016-07-31T08:03:04Z</time>
      </trkpt>
      <trkpt lat="42.43663" lon="0.03953">
        <ele>823.9</ele>
        <time>2016-07-31T08:03:06Z</time>
      </trkpt>
      <trkpt lat="42.4366" lon="0.03949">
        <ele>823.3</ele>
        <time>2016-07-31T08:03:08Z</time>
      </trkpt>
      <trkpt lat="42.43656" lon="0.03944">
        <ele>822.8</ele>
        <time>2016-07-31T08:03:10Z</time>
      </trkpt>
      <trkpt lat="42.43654" lon="0.03938">
        <ele>822.6</ele>
        <time>2016-07-31T08:03:12Z</time>
      </trkpt>
      <trkpt lat="42.43651" lon="0.03932">
        <ele>822.5</ele>
        <time>2016-07-31T08:03:14Z</time>
      </trkpt>
      <trkpt lat="42.43649" lon="0.03925">
        <ele>822.5</ele>
        <time>2016-07-31T08:03:16Z</time>
      </trkpt>
      <trkpt lat="42.43648" lon="0.03919">
        <ele>822.6</ele>
        <time>2016-07-31T08:03:18Z</time>
      </trkpt>
      <trkpt lat="42.43646" lon="0.03913">
        <ele>822.7</ele>
        <time>2016-07-31T08:03:20Z</time>
      </trkpt>
      <trkpt lat="42.43644" lon="0.03907">
        <ele>822.7</ele>
        <time>2016-07-31T08:03:22Z</time>
      </trkpt>
      <trkpt lat="42.43642" lon="0.03901">
        <ele>822.6</ele>
        <time>2016-07-31T08:03:24Z</time>
      </trkpt>
      <trkpt lat="42.43641" lon="0.03895">
        <ele>822.6</ele>
        <time>2016-07-31T08:03:26Z</time>
      </trkpt>
      <trkpt lat="42.43639" lon="0.03889">
        <ele>822.7</ele>
        <time>2016-07-31T08:03:28Z</time>
      </trkpt>
      <trkpt lat="42.43638" lon="0.03884">
        <ele>822.8</ele>
        <time>2016-07-31T08:03:30Z</time>
      </trkpt>
      <trkpt lat="42.43636" lon="0.03878">
        <ele>822.8</ele>
        <time>2016-07-31T08:03:32Z</time>
      </trkpt>
      <trkpt lat="42.43634" lon="0.03872">
        <ele>823.2</ele>
        <time>2016-07-31T08:03:34Z</time>
      </trkpt>
      <trkpt lat="42.43633" lon="0.03867">
        <ele>824</ele>
        <time>2016-07-31T08:03:36Z</time>
      </trkpt>
      <trkpt lat="42.43632" lon="0.03861">
        <ele>825.4</ele>
        <time>2016-07-31T08:03:38Z</time>
      </trkpt>
      <trkpt lat="42.43632" lon="0.03855">
        <ele>827</ele>
        <time>2016-07-31T08:03:40Z</time>
      </trkpt>
      <trkpt lat="42.43631" lon="0.03848">
        <ele>828.7</ele>
        <time>2016-07-31T08:03:42Z</time>
      </trkpt>
      <trkpt lat="42.43632" lon="0.03842">
        <ele>830.5</ele>
        <time>2016-07-31T08:03:44Z</time>
      </trkpt>
      <trkpt lat="42.43632" lon="0.03835">
        <ele>832.6</ele>
        <time>2016-07-31T08:03:46Z</time>
      </trkpt>
      <trkpt lat="42.43633" lon="0.03828">
        <ele>834.7</ele>
        <time>2016-07-31T08:03:48Z</time>
      </trkpt>
      <trkpt lat="42.43633" lon="0.03821">
        <ele>836.7</ele>
        <time>2016-07-31T08:03:50Z</time>
      </trkpt>
      <trkpt lat="42.43632" lon="0.03814">
        <ele>838.2</ele>
        <time>2016-07-31T08:03:52Z</time>
      </trkpt>
      <trkpt lat="42.4363" lon="0.03807">
        <ele>839.3</ele>
        <time>2016-07-31T08:03:54Z</time>
      </trkpt>
      <trkpt lat="42.43628" lon="0.03801">
        <ele>840.4</ele>
        <time>2016-07-31T08:03:56Z</time>
      </trkpt>
      <trkpt lat="42.43625" lon="0.03796">
        <ele>840.9</ele>
        <time>2016-07-31T08:03:58Z</time>
      </trkpt>
      <trkpt lat="42.43622" lon="0.03792">
        <ele>841</ele>
        <time>2016-07-31T08:04:00Z</time>
      </trkpt>
      <trkpt lat="42.43618" lon="0.03787">
        <ele>840.4</ele>
        <time>2016-07-31T08:04:02Z</time>
      </trkpt>
      <trkpt lat="42.43616" lon="0.03784">
        <ele>840.1</ele>
        <time>2016-07-31T08:04:03Z</time>
      </trkpt>
      <trkpt lat="42.43612" lon="0.03779">
        <ele>839.6</ele>
        <time>2016-07-31T08:04:05Z</time>
      </trkpt>
      <trkpt lat="42.43609" lon="0.03775">
        <ele>839.2</ele>
        <time>2016-07-31T08:04:07Z</time>
      </trkpt>
      <trkpt lat="42.43606" lon="0.0377">
        <ele>838.8</ele>
        <time>2016-07-31T08:04:09Z</time>
      </trkpt>
      <trkpt lat="42.43603" lon="0.03765">
        <ele>838.4</ele>
        <time>2016-07-31T08:04:11Z</time>
      </trkpt>
      <trkpt lat="42.43599" lon="0.03761">
        <ele>837.8</ele>
        <time>2016-07-31T08:04:13Z</time>
      </trkpt>
      <trkpt lat="42.43596" lon="0.03756">
        <ele>837.4</ele>
        <time>2016-07-31T08:04:15Z</time>
      </trkpt>
      <trkpt lat="42.43593" lon="0.0375">
        <ele>837</ele>
        <time>2016-07-31T08:04:17Z</time>
      </trkpt>
      <trkpt lat="42.4359" lon="0.03744">
        <ele>836.9</ele>
        <time>2016-07-31T08:04:19Z</time>
      </trkpt>
      <trkpt lat="42.43588" lon="0.03738">
        <ele>837</ele>
        <time>2016-07-31T08:04:21Z</time>
      </trkpt>
      <trkpt lat="42.43586" lon="0.03732">
        <ele>837.1</ele>
        <time>2016-07-31T08:04:23Z</time>
      </trkpt>
      <trkpt lat="42.43584" lon="0.03726">
        <ele>837.1</ele>
        <time>2016-07-31T08:04:25Z</time>
      </trkpt>
      <trkpt lat="42.43581" lon="0.03721">
        <ele>837</ele>
        <time>2016-07-31T08:04:27Z</time>
      </trkpt>
      <trkpt lat="42.43579" lon="0.03715">
        <ele>837</ele>
        <time>2016-07-31T08:04:29Z</time>
      </trkpt>
      <trkpt lat="42.43578" lon="0.03709">
        <ele>837.1</ele>
        <time>2016-07-31T08:04:31Z</time>
      </trkpt>
      <trkpt lat="42.43576" lon="0.03703">
        <ele>837.3</ele>
        <time>2016-07-31T08:04:33Z</time>
      </trkpt>
      <trkpt lat="42.43575" lon="0.03697">
        <ele>837.8</ele>
        <time>2016-07-31T08:04:35Z</time>
      </trkpt>
      <trkpt lat="42.43575" lon="0.0369">
        <ele>838.6</ele>
        <time>2016-07-31T08:04:37Z</time>
      </trkpt>
      <trkpt lat="42.43576" lon="0.03684">
        <ele>839.6</ele>
        <time>2016-07-31T08:04:39Z</time>
      </trkpt>
      <trkpt lat="42.43577" lon="0.03678">
        <ele>840.6</ele>
        <time>2016-07-31T08:04:41Z</time>
      </trkpt>
      <trkpt lat="42.4358" lon="0.03672">
        <ele>841.9</ele>
        <time>2016-07-31T08:04:43Z</time>
      </trkpt>
      <trkpt lat="42.43583" lon="0.03667">
        <ele>843.3</ele>
        <time>2016-07-31T08:04:45Z</time>
      </trkpt>
      <trkpt lat="42.43585" lon="0.03661">
        <ele>844.5</ele>
        <time>2016-07-31T08:04:47Z</time>
      </trkpt>
      <trkpt lat="42.43587" lon="0.03656">
        <ele>845.7</ele>
        <time>2016-07-31T08:04:49Z</time>
      </trkpt>
      <trkpt lat="42.4359" lon="0.0365">
        <ele>846.8</ele>
        <time>2016-07-31T08:04:51Z</time>
      </trkpt>
      <trkpt lat="42.43592" lon="0.03645">
        <ele>847.9</ele>
        <time>2016-07-31T08:04:53Z</time>
      </trkpt>
      <trkpt lat="42.43594" lon="0.03639">
        <ele>848.9</ele>
        <time>2016-07-31T08:04:55Z</time>
      </trkpt>
      <trkpt lat="42.43595" lon="0.03634">
        <ele>849.8</ele>
        <time>2016-07-31T08:04:57Z</time>
      </trkpt>
      <trkpt lat="42.43597" lon="0.03628">
        <ele>850.6</ele>
        <time>2016-07-31T08:04:59Z</time>
      </trkpt>
      <trkpt lat="42.43597" lon="0.03622">
        <ele>851.6</ele>
        <time>2016-07-31T08:05:01Z</time>
      </trkpt>
      <trkpt lat="42.43597" lon="0.03616">
        <ele>852.8</ele>
        <time>2016-07-31T08:05:03Z</time>
      </trkpt>
      <trkpt lat="42.43596" lon="0.0361">
        <ele>853.7</ele>
        <time>2016-07-31T08:05:05Z</time>
      </trkpt>
      <trkpt lat="42.43595" lon="0.03603">
        <ele>854.6</ele>
        <time>2016-07-31T08:05:07Z</time>
      </trkpt>
      <trkpt lat="42.43593" lon="0.03597">
        <ele>855.4</ele>
        <time>2016-07-31T08:05:09Z</time>
      </trkpt>
      <trkpt lat="42.43591" lon="0.03591">
        <ele>856</ele>
        <time>2016-07-31T08:05:11Z</time>
      </trkpt>
      <trkpt lat="42.43589" lon="0.03585">
        <ele>856.5</ele>
        <time>2016-07-31T08:05:13Z</time>
      </trkpt>
      <trkpt lat="42.43585" lon="0.0358">
        <ele>856.7</ele>
        <time>2016-07-31T08:05:15Z</time>
      </trkpt>
      <trkpt lat="42.43583" lon="0.03578">
        <ele>856.6</ele>
        <time>2016-07-31T08:05:16Z</time>
      </trkpt>
      <trkpt lat="42.4358" lon="0.03575">
        <ele>856.6</ele>
        <time>2016-07-31T08:05:17Z</time>
      </trkpt>
      <trkpt lat="42.43578" lon="0.03573">
        <ele>856.5</ele>
        <time>2016-07-31T08:05:18Z</time>
      </trkpt>
      <trkpt lat="42.43576" lon="0.03571">
        <ele>856.4</ele>
        <time>2016-07-31T08:05:19Z</time>
      </trkpt>
      <trkpt lat="42.43573" lon="0.03569">
        <ele>856.2</ele>
        <time>2016-07-31T08:05:20Z</time>
      </trkpt>
      <trkpt lat="42.43571" lon="0.03567">
        <ele>856</ele>
        <time>2016-07-31T08:05:21Z</time>
      </trkpt>
      <trkpt lat="42.43568" lon="0.03566">
        <ele>855.7</ele>
        <time>2016-07-31T08:05:22Z</time>
      </trkpt>
      <trkpt lat="42.43566" lon="0.03564">
        <ele>855.4</ele>
        <time>2016-07-31T08:05:23Z</time>
      </trkpt>
      <trkpt lat="42.43564" lon="0.03562">
        <ele>855.3</ele>
        <time>2016-07-31T08:05:24Z</time>
      </trkpt>
      <trkpt lat="42.43559" lon="0.03558">
        <ele>854.9</ele>
        <time>2016-07-31T08:05:26Z</time>
      </trkpt>
      <trkpt lat="42.43554" lon="0.03554">
        <ele>854.6</ele>
        <time>2016-07-31T08:05:28Z</time>
      </trkpt>
      <trkpt lat="42.4355" lon="0.03551">
        <ele>854.3</ele>
        <time>2016-07-31T08:05:30Z</time>
      </trkpt>
      <trkpt lat="42.43546" lon="0.03546">
        <ele>854.1</ele>
        <time>2016-07-31T08:05:32Z</time>
      </trkpt>
      <trkpt lat="42.43544" lon="0.03544">
        <ele>854</ele>
        <time>2016-07-31T08:05:33Z</time>
      </trkpt>
      <trkpt lat="42.43542" lon="0.03542">
        <ele>854</ele>
        <time>2016-07-31T08:05:34Z</time>
      </trkpt>
      <trkpt lat="42.4354" lon="0.03539">
        <ele>854.4</ele>
        <time>2016-07-31T08:05:35Z</time>
      </trkpt>
      <trkpt lat="42.43538" lon="0.03537">
        <ele>854.7</ele>
        <time>2016-07-31T08:05:36Z</time>
      </trkpt>
      <trkpt lat="42.43535" lon="0.03534">
        <ele>855</ele>
        <time>2016-07-31T08:05:37Z</time>
      </trkpt>
      <trkpt lat="42.43534" lon="0.03531">
        <ele>855.4</ele>
        <time>2016-07-31T08:05:38Z</time>
      </trkpt>
      <trkpt lat="42.43531" lon="0.03526">
        <ele>856.1</ele>
        <time>2016-07-31T08:05:40Z</time>
      </trkpt>
      <trkpt lat="42.43529" lon="0.03522">
        <ele>856.5</ele>
        <time>2016-07-31T08:05:41Z</time>
      </trkpt>
      <trkpt lat="42.43528" lon="0.03519">
        <ele>856.9</ele>
        <time>2016-07-31T08:05:42Z</time>
      </trkpt>
      <trkpt lat="42.43527" lon="0.03515">
        <ele>857.3</ele>
        <time>2016-07-31T08:05:43Z</time>
      </trkpt>
      <trkpt lat="42.43525" lon="0.03512">
        <ele>857.7</ele>
        <time>2016-07-31T08:05:44Z</time>
      </trkpt>
      <trkpt lat="42.43524" lon="0.03508">
        <ele>858.1</ele>
        <time>2016-07-31T08:05:45Z</time>
      </trkpt>
      <trkpt lat="42.43523" lon="0.03504">
        <ele>858.5</ele>
        <time>2016-07-31T08:05:46Z</time>
      </trkpt>
      <trkpt lat="42.43521" lon="0.035">
        <ele>858.8</ele>
        <time>2016-07-31T08:05:47Z</time>
      </trkpt>
      <trkpt lat="42.4352" lon="0.03496">
        <ele>859.1</ele>
        <time>2016-07-31T08:05:48Z</time>
      </trkpt>
      <trkpt lat="42.43519" lon="0.03493">
        <ele>859.4</ele>
        <time>2016-07-31T08:05:49Z</time>
      </trkpt>
      <trkpt lat="42.43518" lon="0.03489">
        <ele>859.7</ele>
        <time>2016-07-31T08:05:50Z</time>
      </trkpt>
      <trkpt lat="42.43516" lon="0.03486">
        <ele>859.9</ele>
        <time>2016-07-31T08:05:51Z</time>
      </trkpt>
      <trkpt lat="42.43515" lon="0.03483">
        <ele>860.1</ele>
        <time>2016-07-31T08:05:52Z</time>
      </trkpt>
      <trkpt lat="42.43513" lon="0.03476">
        <ele>860.3</ele>
        <time>2016-07-31T08:05:54Z</time>
      </trkpt>
      <trkpt lat="42.43511" lon="0.03473">
        <ele>860.4</ele>
        <time>2016-07-31T08:05:55Z</time>
      </trkpt>
      <trkpt lat="42.43509" lon="0.0347">
        <ele>860.4</ele>
        <time>2016-07-31T08:05:56Z</time>
      </trkpt>
      <trkpt lat="42.43508" lon="0.03467">
        <ele>860.4</ele>
        <time>2016-07-31T08:05:57Z</time>
      </trkpt>
      <trkpt lat="42.43506" lon="0.03463">
        <ele>860.4</ele>
        <time>2016-07-31T08:05:58Z</time>
      </trkpt>
      <trkpt lat="42.43505" lon="0.0346">
        <ele>860.4</ele>
        <time>2016-07-31T08:05:59Z</time>
      </trkpt>
      <trkpt lat="42.43504" lon="0.03456">
        <ele>860.5</ele>
        <time>2016-07-31T08:06:00Z</time>
      </trkpt>
      <trkpt lat="42.43503" lon="0.03453">
        <ele>860.6</ele>
        <time>2016-07-31T08:06:01Z</time>
      </trkpt>
      <trkpt lat="42.43502" lon="0.03449">
        <ele>860.7</ele>
        <time>2016-07-31T08:06:02Z</time>
      </trkpt>
      <trkpt lat="42.43501" lon="0.03446">
        <ele>860.7</ele>
        <time>2016-07-31T08:06:03Z</time>
      </trkpt>
      <trkpt lat="42.435" lon="0.03442">
        <ele>860.9</ele>
        <time>2016-07-31T08:06:04Z</time>
      </trkpt>
      <trkpt lat="42.43499" lon="0.03438">
        <ele>861</ele>
        <time>2016-07-31T08:06:05Z</time>
      </trkpt>
      <trkpt lat="42.43498" lon="0.03435">
        <ele>861</ele>
        <time>2016-07-31T08:06:06Z</time>
      </trkpt>
      <trkpt lat="42.43497" lon="0.03431">
        <ele>860.9</ele>
        <time>2016-07-31T08:06:07Z</time>
      </trkpt>
      <trkpt lat="42.43496" lon="0.03428">
        <ele>860.9</ele>
        <time>2016-07-31T08:06:08Z</time>
      </trkpt>
      <trkpt lat="42.43495" lon="0.03424">
        <ele>860.9</ele>
        <time>2016-07-31T08:06:09Z</time>
      </trkpt>
      <trkpt lat="42.43494" lon="0.0342">
        <ele>860.9</ele>
        <time>2016-07-31T08:06:10Z</time>
      </trkpt>
      <trkpt lat="42.43493" lon="0.03416">
        <ele>860.9</ele>
        <time>2016-07-31T08:06:11Z</time>
      </trkpt>
      <trkpt lat="42.43492" lon="0.03412">
        <ele>860.9</ele>
        <time>2016-07-31T08:06:12Z</time>
      </trkpt>
      <trkpt lat="42.43491" lon="0.03409">
        <ele>860.9</ele>
        <time>2016-07-31T08:06:13Z</time>
      </trkpt>
      <trkpt lat="42.4349" lon="0.03405">
        <ele>860.8</ele>
        <time>2016-07-31T08:06:14Z</time>
      </trkpt>
      <trkpt lat="42.43489" lon="0.03402">
        <ele>860.7</ele>
        <time>2016-07-31T08:06:15Z</time>
      </trkpt>
      <trkpt lat="42.43487" lon="0.03395">
        <ele>860.7</ele>
        <time>2016-07-31T08:06:17Z</time>
      </trkpt>
      <trkpt lat="42.43486" lon="0.03391">
        <ele>860.6</ele>
        <time>2016-07-31T08:06:18Z</time>
      </trkpt>
      <trkpt lat="42.43486" lon="0.03387">
        <ele>860.7</ele>
        <time>2016-07-31T08:06:19Z</time>
      </trkpt>
      <trkpt lat="42.43485" lon="0.03384">
        <ele>860.7</ele>
        <time>2016-07-31T08:06:20Z</time>
      </trkpt>
      <trkpt lat="42.43484" lon="0.0338">
        <ele>860.5</ele>
        <time>2016-07-31T08:06:21Z</time>
      </trkpt>
      <trkpt lat="42.43483" lon="0.03377">
        <ele>860.5</ele>
        <time>2016-07-31T08:06:22Z</time>
      </trkpt>
      <trkpt lat="42.43483" lon="0.03373">
        <ele>860.6</ele>
        <time>2016-07-31T08:06:23Z</time>
      </trkpt>
      <trkpt lat="42.43482" lon="0.03369">
        <ele>860.7</ele>
        <time>2016-07-31T08:06:24Z</time>
      </trkpt>
      <trkpt lat="42.43482" lon="0.03365">
        <ele>861</ele>
        <time>2016-07-31T08:06:25Z</time>
      </trkpt>
      <trkpt lat="42.43482" lon="0.03362">
        <ele>861.2</ele>
        <time>2016-07-31T08:06:26Z</time>
      </trkpt>
      <trkpt lat="42.43482" lon="0.03355">
        <ele>861.5</ele>
        <time>2016-07-31T08:06:28Z</time>
      </trkpt>
      <trkpt lat="42.43481" lon="0.03351">
        <ele>861.5</ele>
        <time>2016-07-31T08:06:29Z</time>
      </trkpt>
      <trkpt lat="42.4348" lon="0.03347">
        <ele>861.5</ele>
        <time>2016-07-31T08:06:30Z</time>
      </trkpt>
      <trkpt lat="42.4348" lon="0.03343">
        <ele>861.6</ele>
        <time>2016-07-31T08:06:31Z</time>
      </trkpt>
      <trkpt lat="42.4348" lon="0.0334">
        <ele>861.8</ele>
        <time>2016-07-31T08:06:32Z</time>
      </trkpt>
      <trkpt lat="42.43479" lon="0.03333">
        <ele>862.1</ele>
        <time>2016-07-31T08:06:34Z</time>
      </trkpt>
      <trkpt lat="42.43479" lon="0.03326">
        <ele>862.5</ele>
        <time>2016-07-31T08:06:36Z</time>
      </trkpt>
      <trkpt lat="42.43479" lon="0.03322">
        <ele>862.9</ele>
        <time>2016-07-31T08:06:37Z</time>
      </trkpt>
      <trkpt lat="42.4348" lon="0.03318">
        <ele>863.3</ele>
        <time>2016-07-31T08:06:38Z</time>
      </trkpt>
      <trkpt lat="42.43481" lon="0.03312">
        <ele>864.2</ele>
        <time>2016-07-31T08:06:40Z</time>
      </trkpt>
      <trkpt lat="42.43482" lon="0.03306">
        <ele>865</ele>
        <time>2016-07-31T08:06:42Z</time>
      </trkpt>
      <trkpt lat="42.43484" lon="0.033">
        <ele>866.2</ele>
        <time>2016-07-31T08:06:44Z</time>
      </trkpt>
      <trkpt lat="42.43487" lon="0.03293">
        <ele>867.6</ele>
        <time>2016-07-31T08:06:46Z</time>
      </trkpt>
      <trkpt lat="42.43489" lon="0.0329">
        <ele>868.5</ele>
        <time>2016-07-31T08:06:47Z</time>
      </trkpt>
      <trkpt lat="42.43492" lon="0.03285">
        <ele>870.2</ele>
        <time>2016-07-31T08:06:49Z</time>
      </trkpt>
      <trkpt lat="42.43494" lon="0.0328">
        <ele>871.9</ele>
        <time>2016-07-31T08:06:51Z</time>
      </trkpt>
      <trkpt lat="42.43497" lon="0.03275">
        <ele>873.8</ele>
        <time>2016-07-31T08:06:53Z</time>
      </trkpt>
      <trkpt lat="42.435" lon="0.0327">
        <ele>875.6</ele>
        <time>2016-07-31T08:06:55Z</time>
      </trkpt>
      <trkpt lat="42.43502" lon="0.03265">
        <ele>877.3</ele>
        <time>2016-07-31T08:06:57Z</time>
      </trkpt>
      <trkpt lat="42.43505" lon="0.0326">
        <ele>879.1</ele>
        <time>2016-07-31T08:06:59Z</time>
      </trkpt>
      <trkpt lat="42.43508" lon="0.03255">
        <ele>880.9</ele>
        <time>2016-07-31T08:07:01Z</time>
      </trkpt>
      <trkpt lat="42.4351" lon="0.03249">
        <ele>882.8</ele>
        <time>2016-07-31T08:07:03Z</time>
      </trkpt>
      <trkpt lat="42.43512" lon="0.03243">
        <ele>884.3</ele>
        <time>2016-07-31T08:07:05Z</time>
      </trkpt>
      <trkpt lat="42.43513" lon="0.03237">
        <ele>885.6</ele>
        <time>2016-07-31T08:07:07Z</time>
      </trkpt>
      <trkpt lat="42.43513" lon="0.03231">
        <ele>886.6</ele>
        <time>2016-07-31T08:07:09Z</time>
      </trkpt>
      <trkpt lat="42.43512" lon="0.03225">
        <ele>887.4</ele>
        <time>2016-07-31T08:07:11Z</time>
      </trkpt>
      <trkpt lat="42.4351" lon="0.03218">
        <ele>888</ele>
        <time>2016-07-31T08:07:13Z</time>
      </trkpt>
      <trkpt lat="42.43507" lon="0.03212">
        <ele>887.9</ele>
        <time>2016-07-31T08:07:15Z</time>
      </trkpt>
      <trkpt lat="42.43504" lon="0.03207">
        <ele>887.9</ele>
        <time>2016-07-31T08:07:17Z</time>
      </trkpt>
      <trkpt lat="42.435" lon="0.03203">
        <ele>887.6</ele>
        <time>2016-07-31T08:07:19Z</time>
      </trkpt>
      <trkpt lat="42.43496" lon="0.03199">
        <ele>886.9</ele>
        <time>2016-07-31T08:07:21Z</time>
      </trkpt>
      <trkpt lat="42.43492" lon="0.03196">
        <ele>886.1</ele>
        <time>2016-07-31T08:07:23Z</time>
      </trkpt>
      <trkpt lat="42.43487" lon="0.03193">
        <ele>885</ele>
        <time>2016-07-31T08:07:25Z</time>
      </trkpt>
      <trkpt lat="42.43482" lon="0.03191">
        <ele>883.8</ele>
        <time>2016-07-31T08:07:27Z</time>
      </trkpt>
      <trkpt lat="42.43477" lon="0.03189">
        <ele>882.4</ele>
        <time>2016-07-31T08:07:29Z</time>
      </trkpt>
      <trkpt lat="42.43475" lon="0.03188">
        <ele>881.8</ele>
        <time>2016-07-31T08:07:30Z</time>
      </trkpt>
      <trkpt lat="42.4347" lon="0.03184">
        <ele>880.8</ele>
        <time>2016-07-31T08:07:32Z</time>
      </trkpt>
      <trkpt lat="42.43465" lon="0.03182">
        <ele>879.6</ele>
        <time>2016-07-31T08:07:34Z</time>
      </trkpt>
      <trkpt lat="42.4346" lon="0.0318">
        <ele>878.3</ele>
        <time>2016-07-31T08:07:36Z</time>
      </trkpt>
      <trkpt lat="42.43456" lon="0.03176">
        <ele>878.2</ele>
        <time>2016-07-31T08:07:38Z</time>
      </trkpt>
      <trkpt lat="42.43452" lon="0.03172">
        <ele>878.8</ele>
        <time>2016-07-31T08:07:40Z</time>
      </trkpt>
      <trkpt lat="42.43449" lon="0.03168">
        <ele>879.4</ele>
        <time>2016-07-31T08:07:42Z</time>
      </trkpt>
      <trkpt lat="42.43446" lon="0.03163">
        <ele>880.1</ele>
        <time>2016-07-31T08:07:44Z</time>
      </trkpt>
      <trkpt lat="42.43443" lon="0.03158">
        <ele>880.8</ele>
        <time>2016-07-31T08:07:46Z</time>
      </trkpt>
      <trkpt lat="42.43441" lon="0.03152">
        <ele>881.5</ele>
        <time>2016-07-31T08:07:48Z</time>
      </trkpt>
      <trkpt lat="42.4344" lon="0.03145">
        <ele>882.4</ele>
        <time>2016-07-31T08:07:50Z</time>
      </trkpt>
      <trkpt lat="42.43439" lon="0.03139">
        <ele>883.3</ele>
        <time>2016-07-31T08:07:52Z</time>
      </trkpt>
      <trkpt lat="42.43439" lon="0.03132">
        <ele>884.4</ele>
        <time>2016-07-31T08:07:54Z</time>
      </trkpt>
      <trkpt lat="42.43439" lon="0.03129">
        <ele>885</ele>
        <time>2016-07-31T08:07:55Z</time>
      </trkpt>
      <trkpt lat="42.4344" lon="0.03122">
        <ele>886.3</ele>
        <time>2016-07-31T08:07:57Z</time>
      </trkpt>
      <trkpt lat="42.43439" lon="0.03115">
        <ele>887.6</ele>
        <time>2016-07-31T08:07:59Z</time>
      </trkpt>
      <trkpt lat="42.43438" lon="0.03109">
        <ele>888.7</ele>
        <time>2016-07-31T08:08:01Z</time>
      </trkpt>
      <trkpt lat="42.43436" lon="0.03103">
        <ele>889.4</ele>
        <time>2016-07-31T08:08:03Z</time>
      </trkpt>
      <trkpt lat="42.43434" lon="0.03097">
        <ele>889.8</ele>
        <time>2016-07-31T08:08:05Z</time>
      </trkpt>
      <trkpt lat="42.43431" lon="0.03092">
        <ele>889.9</ele>
        <time>2016-07-31T08:08:07Z</time>
      </trkpt>
      <trkpt lat="42.43428" lon="0.03087">
        <ele>890</ele>
        <time>2016-07-31T08:08:09Z</time>
      </trkpt>
      <trkpt lat="42.43425" lon="0.03082">
        <ele>890</ele>
        <time>2016-07-31T08:08:11Z</time>
      </trkpt>
      <trkpt lat="42.43423" lon="0.03076">
        <ele>890.1</ele>
        <time>2016-07-31T08:08:13Z</time>
      </trkpt>
      <trkpt lat="42.43421" lon="0.03071">
        <ele>890.2</ele>
        <time>2016-07-31T08:08:15Z</time>
      </trkpt>
      <trkpt lat="42.43419" lon="0.03066">
        <ele>890.3</ele>
        <time>2016-07-31T08:08:17Z</time>
      </trkpt>
      <trkpt lat="42.43417" lon="0.03061">
        <ele>890.3</ele>
        <time>2016-07-31T08:08:19Z</time>
      </trkpt>
      <trkpt lat="42.43415" lon="0.03055">
        <ele>890.3</ele>
        <time>2016-07-31T08:08:21Z</time>
      </trkpt>
      <trkpt lat="42.43413" lon="0.03049">
        <ele>890.2</ele>
        <time>2016-07-31T08:08:23Z</time>
      </trkpt>
      <trkpt lat="42.43411" lon="0.03044">
        <ele>890</ele>
        <time>2016-07-31T08:08:25Z</time>
      </trkpt>
      <trkpt lat="42.43409" lon="0.03038">
        <ele>890.2</ele>
        <time>2016-07-31T08:08:27Z</time>
      </trkpt>
      <trkpt lat="42.43406" lon="0.03032">
        <ele>890.3</ele>
        <time>2016-07-31T08:08:29Z</time>
      </trkpt>
      <trkpt lat="42.43404" lon="0.03026">
        <ele>890.2</ele>
        <time>2016-07-31T08:08:31Z</time>
      </trkpt>
      <trkpt lat="42.43402" lon="0.03022">
        <ele>889.9</ele>
        <time>2016-07-31T08:08:33Z</time>
      </trkpt>
      <trkpt lat="42.434" lon="0.03017">
        <ele>889.9</ele>
        <time>2016-07-31T08:08:35Z</time>
      </trkpt>
      <trkpt lat="42.43398" lon="0.03011">
        <ele>890</ele>
        <time>2016-07-31T08:08:37Z</time>
      </trkpt>
      <trkpt lat="42.43396" lon="0.03006">
        <ele>889.9</ele>
        <time>2016-07-31T08:08:39Z</time>
      </trkpt>
      <trkpt lat="42.43393" lon="0.03001">
        <ele>889.5</ele>
        <time>2016-07-31T08:08:41Z</time>
      </trkpt>
      <trkpt lat="42.43391" lon="0.02997">
        <ele>889</ele>
        <time>2016-07-31T08:08:43Z</time>
      </trkpt>
      <trkpt lat="42.43387" lon="0.02993">
        <ele>888</ele>
        <time>2016-07-31T08:08:45Z</time>
      </trkpt>
      <trkpt lat="42.43385" lon="0.02988">
        <ele>887.4</ele>
        <time>2016-07-31T08:08:47Z</time>
      </trkpt>
      <trkpt lat="42.43383" lon="0.02982">
        <ele>887.6</ele>
        <time>2016-07-31T08:08:49Z</time>
      </trkpt>
      <trkpt lat="42.43381" lon="0.02976">
        <ele>887.8</ele>
        <time>2016-07-31T08:08:51Z</time>
      </trkpt>
      <trkpt lat="42.4338" lon="0.02972">
        <ele>887.6</ele>
        <time>2016-07-31T08:08:52Z</time>
      </trkpt>
      <trkpt lat="42.43379" lon="0.02969">
        <ele>887.5</ele>
        <time>2016-07-31T08:08:53Z</time>
      </trkpt>
      <trkpt lat="42.43378" lon="0.02966">
        <ele>887.3</ele>
        <time>2016-07-31T08:08:54Z</time>
      </trkpt>
      <trkpt lat="42.43376" lon="0.0296">
        <ele>887.1</ele>
        <time>2016-07-31T08:08:56Z</time>
      </trkpt>
      <trkpt lat="42.43374" lon="0.02954">
        <ele>887.6</ele>
        <time>2016-07-31T08:08:58Z</time>
      </trkpt>
      <trkpt lat="42.43373" lon="0.02946">
        <ele>888.6</ele>
        <time>2016-07-31T08:09:00Z</time>
      </trkpt>
      <trkpt lat="42.43373" lon="0.02943">
        <ele>889.2</ele>
        <time>2016-07-31T08:09:01Z</time>
      </trkpt>
      <trkpt lat="42.43373" lon="0.02936">
        <ele>890.3</ele>
        <time>2016-07-31T08:09:03Z</time>
      </trkpt>
      <trkpt lat="42.43373" lon="0.02929">
        <ele>891.4</ele>
        <time>2016-07-31T08:09:05Z</time>
      </trkpt>
      <trkpt lat="42.43373" lon="0.02923">
        <ele>892.6</ele>
        <time>2016-07-31T08:09:07Z</time>
      </trkpt>
      <trkpt lat="42.43373" lon="0.02916">
        <ele>893.8</ele>
        <time>2016-07-31T08:09:09Z</time>
      </trkpt>
      <trkpt lat="42.43374" lon="0.02909">
        <ele>895</ele>
        <time>2016-07-31T08:09:11Z</time>
      </trkpt>
      <trkpt lat="42.43375" lon="0.02902">
        <ele>896.4</ele>
        <time>2016-07-31T08:09:13Z</time>
      </trkpt>
      <trkpt lat="42.43375" lon="0.02898">
        <ele>897.1</ele>
        <time>2016-07-31T08:09:14Z</time>
      </trkpt>
      <trkpt lat="42.43375" lon="0.02891">
        <ele>898.3</ele>
        <time>2016-07-31T08:09:16Z</time>
      </trkpt>
      <trkpt lat="42.43376" lon="0.02884">
        <ele>899.7</ele>
        <time>2016-07-31T08:09:18Z</time>
      </trkpt>
      <trkpt lat="42.43376" lon="0.0288">
        <ele>900.6</ele>
        <time>2016-07-31T08:09:19Z</time>
      </trkpt>
      <trkpt lat="42.43377" lon="0.02873">
        <ele>902.6</ele>
        <time>2016-07-31T08:09:21Z</time>
      </trkpt>
      <trkpt lat="42.43378" lon="0.0287">
        <ele>904.2</ele>
        <time>2016-07-31T08:09:22Z</time>
      </trkpt>
      <trkpt lat="42.43378" lon="0.02866">
        <ele>905.8</ele>
        <time>2016-07-31T08:09:23Z</time>
      </trkpt>
      <trkpt lat="42.43379" lon="0.02862">
        <ele>907.3</ele>
        <time>2016-07-31T08:09:24Z</time>
      </trkpt>
      <trkpt lat="42.43379" lon="0.02859">
        <ele>908.8</ele>
        <time>2016-07-31T08:09:25Z</time>
      </trkpt>
      <trkpt lat="42.4338" lon="0.02855">
        <ele>910.3</ele>
        <time>2016-07-31T08:09:26Z</time>
      </trkpt>
      <trkpt lat="42.4338" lon="0.02851">
        <ele>911.8</ele>
        <time>2016-07-31T08:09:27Z</time>
      </trkpt>
      <trkpt lat="42.43381" lon="0.02847">
        <ele>913.3</ele>
        <time>2016-07-31T08:09:28Z</time>
      </trkpt>
      <trkpt lat="42.43381" lon="0.02843">
        <ele>914.8</ele>
        <time>2016-07-31T08:09:29Z</time>
      </trkpt>
      <trkpt lat="42.43382" lon="0.0284">
        <ele>916.4</ele>
        <time>2016-07-31T08:09:30Z</time>
      </trkpt>
      <trkpt lat="42.43383" lon="0.02836">
        <ele>917.8</ele>
        <time>2016-07-31T08:09:31Z</time>
      </trkpt>
      <trkpt lat="42.43383" lon="0.02832">
        <ele>919.3</ele>
        <time>2016-07-31T08:09:32Z</time>
      </trkpt>
      <trkpt lat="42.43384" lon="0.02829">
        <ele>920.7</ele>
        <time>2016-07-31T08:09:33Z</time>
      </trkpt>
      <trkpt lat="42.43385" lon="0.02825">
        <ele>922.1</ele>
        <time>2016-07-31T08:09:34Z</time>
      </trkpt>
      <trkpt lat="42.43385" lon="0.02821">
        <ele>923.5</ele>
        <time>2016-07-31T08:09:35Z</time>
      </trkpt>
      <trkpt lat="42.43386" lon="0.02818">
        <ele>924.8</ele>
        <time>2016-07-31T08:09:36Z</time>
      </trkpt>
      <trkpt lat="42.43387" lon="0.02814">
        <ele>926.2</ele>
        <time>2016-07-31T08:09:37Z</time>
      </trkpt>
      <trkpt lat="42.43387" lon="0.02811">
        <ele>927.5</ele>
        <time>2016-07-31T08:09:38Z</time>
      </trkpt>
      <trkpt lat="42.43388" lon="0.02807">
        <ele>928.8</ele>
        <time>2016-07-31T08:09:39Z</time>
      </trkpt>
      <trkpt lat="42.4339" lon="0.028">
        <ele>931.2</ele>
        <time>2016-07-31T08:09:41Z</time>
      </trkpt>
      <trkpt lat="42.4339" lon="0.02797">
        <ele>932.4</ele>
        <time>2016-07-31T08:09:42Z</time>
      </trkpt>
      <trkpt lat="42.4339" lon="0.02793">
        <ele>933.7</ele>
        <time>2016-07-31T08:09:43Z</time>
      </trkpt>
      <trkpt lat="42.4339" lon="0.02789">
        <ele>935</ele>
        <time>2016-07-31T08:09:44Z</time>
      </trkpt>
      <trkpt lat="42.4339" lon="0.02782">
        <ele>937.8</ele>
        <time>2016-07-31T08:09:46Z</time>
      </trkpt>
      <trkpt lat="42.43389" lon="0.02778">
        <ele>939.3</ele>
        <time>2016-07-31T08:09:47Z</time>
      </trkpt>
      <trkpt lat="42.43388" lon="0.02774">
        <ele>940.7</ele>
        <time>2016-07-31T08:09:48Z</time>
      </trkpt>
      <trkpt lat="42.43387" lon="0.0277">
        <ele>942.2</ele>
        <time>2016-07-31T08:09:49Z</time>
      </trkpt>
      <trkpt lat="42.43386" lon="0.02767">
        <ele>943.4</ele>
        <time>2016-07-31T08:09:50Z</time>
      </trkpt>
      <trkpt lat="42.43384" lon="0.02764">
        <ele>944.5</ele>
        <time>2016-07-31T08:09:51Z</time>
      </trkpt>
      <trkpt lat="42.43382" lon="0.02762">
        <ele>945.4</ele>
        <time>2016-07-31T08:09:52Z</time>
      </trkpt>
      <trkpt lat="42.4338" lon="0.02759">
        <ele>946.2</ele>
        <time>2016-07-31T08:09:53Z</time>
      </trkpt>
      <trkpt lat="42.43376" lon="0.02755">
        <ele>947.7</ele>
        <time>2016-07-31T08:09:55Z</time>
      </trkpt>
      <trkpt lat="42.43373" lon="0.02754">
        <ele>947.8</ele>
        <time>2016-07-31T08:09:56Z</time>
      </trkpt>
      <trkpt lat="42.4337" lon="0.02753">
        <ele>947.5</ele>
        <time>2016-07-31T08:09:57Z</time>
      </trkpt>
      <trkpt lat="42.43367" lon="0.02752">
        <ele>947.1</ele>
        <time>2016-07-31T08:09:58Z</time>
      </trkpt>
      <trkpt lat="42.43364" lon="0.02752">
        <ele>946.3</ele>
        <time>2016-07-31T08:09:59Z</time>
      </trkpt>
      <trkpt lat="42.43361" lon="0.02752">
        <ele>945.2</ele>
        <time>2016-07-31T08:10:00Z</time>
      </trkpt>
      <trkpt lat="42.43359" lon="0.02753">
        <ele>944.1</ele>
        <time>2016-07-31T08:10:01Z</time>
      </trkpt>
      <trkpt lat="42.43356" lon="0.02754">
        <ele>942.9</ele>
        <time>2016-07-31T08:10:02Z</time>
      </trkpt>
      <trkpt lat="42.43353" lon="0.02754">
        <ele>941.9</ele>
        <time>2016-07-31T08:10:03Z</time>
      </trkpt>
      <trkpt lat="42.4335" lon="0.02754">
        <ele>941</ele>
        <time>2016-07-31T08:10:04Z</time>
      </trkpt>
      <trkpt lat="42.43345" lon="0.02754">
        <ele>939.5</ele>
        <time>2016-07-31T08:10:06Z</time>
      </trkpt>
      <trkpt lat="42.4334" lon="0.02755">
        <ele>937.8</ele>
        <time>2016-07-31T08:10:08Z</time>
      </trkpt>
      <trkpt lat="42.43335" lon="0.02756">
        <ele>936</ele>
        <time>2016-07-31T08:10:10Z</time>
      </trkpt>
      <trkpt lat="42.43331" lon="0.02757">
        <ele>934.5</ele>
        <time>2016-07-31T08:10:12Z</time>
      </trkpt>
      <trkpt lat="42.43326" lon="0.02756">
        <ele>933.6</ele>
        <time>2016-07-31T08:10:14Z</time>
      </trkpt>
      <trkpt lat="42.43323" lon="0.02757">
        <ele>932.2</ele>
        <time>2016-07-31T08:10:16Z</time>
      </trkpt>
      <trkpt lat="42.43318" lon="0.02758">
        <ele>930.3</ele>
        <time>2016-07-31T08:10:18Z</time>
      </trkpt>
      <trkpt lat="42.43313" lon="0.0276">
        <ele>928.1</ele>
        <time>2016-07-31T08:10:20Z</time>
      </trkpt>
      <trkpt lat="42.43308" lon="0.02762">
        <ele>926</ele>
        <time>2016-07-31T08:10:22Z</time>
      </trkpt>
      <trkpt lat="42.43303" lon="0.02764">
        <ele>924</ele>
        <time>2016-07-31T08:10:24Z</time>
      </trkpt>
      <trkpt lat="42.43298" lon="0.02763">
        <ele>922.8</ele>
        <time>2016-07-31T08:10:26Z</time>
      </trkpt>
      <trkpt lat="42.43294" lon="0.02761">
        <ele>922.4</ele>
        <time>2016-07-31T08:10:28Z</time>
      </trkpt>
      <trkpt lat="42.4329" lon="0.02757">
        <ele>922.6</ele>
        <time>2016-07-31T08:10:30Z</time>
      </trkpt>
      <trkpt lat="42.43287" lon="0.02752">
        <ele>923.4</ele>
        <time>2016-07-31T08:10:32Z</time>
      </trkpt>
      <trkpt lat="42.43284" lon="0.02747">
        <ele>924.5</ele>
        <time>2016-07-31T08:10:34Z</time>
      </trkpt>
      <trkpt lat="42.43281" lon="0.02742">
        <ele>925.3</ele>
        <time>2016-07-31T08:10:36Z</time>
      </trkpt>
      <trkpt lat="42.43278" lon="0.02737">
        <ele>926.3</ele>
        <time>2016-07-31T08:10:38Z</time>
      </trkpt>
      <trkpt lat="42.43276" lon="0.02731">
        <ele>927.4</ele>
        <time>2016-07-31T08:10:40Z</time>
      </trkpt>
      <trkpt lat="42.43273" lon="0.02726">
        <ele>928.4</ele>
        <time>2016-07-31T08:10:42Z</time>
      </trkpt>
      <trkpt lat="42.4327" lon="0.02721">
        <ele>929.1</ele>
        <time>2016-07-31T08:10:44Z</time>
      </trkpt>
      <trkpt lat="42.43267" lon="0.02716">
        <ele>929.7</ele>
        <time>2016-07-31T08:10:46Z</time>
      </trkpt>
      <trkpt lat="42.43264" lon="0.02711">
        <ele>930.4</ele>
        <time>2016-07-31T08:10:48Z</time>
      </trkpt>
      <trkpt lat="42.43261" lon="0.02706">
        <ele>931.4</ele>
        <time>2016-07-31T08:10:50Z</time>
      </trkpt>
      <trkpt lat="42.43258" lon="0.02702">
        <ele>932.7</ele>
        <time>2016-07-31T08:10:52Z</time>
      </trkpt>
      <trkpt lat="42.43256" lon="0.02697">
        <ele>933.8</ele>
        <time>2016-07-31T08:10:54Z</time>
      </trkpt>
      <trkpt lat="42.43253" lon="0.02692">
        <ele>935</ele>
        <time>2016-07-31T08:10:56Z</time>
      </trkpt>
      <trkpt lat="42.43251" lon="0.02688">
        <ele>936.3</ele>
        <time>2016-07-31T08:10:58Z</time>
      </trkpt>
      <trkpt lat="42.43248" lon="0.02682">
        <ele>938</ele>
        <time>2016-07-31T08:11:00Z</time>
      </trkpt>
      <trkpt lat="42.43246" lon="0.02677">
        <ele>939.6</ele>
        <time>2016-07-31T08:11:02Z</time>
      </trkpt>
      <trkpt lat="42.43244" lon="0.02672">
        <ele>940.9</ele>
        <time>2016-07-31T08:11:04Z</time>
      </trkpt>
      <trkpt lat="42.43241" lon="0.02668">
        <ele>942.1</ele>
        <time>2016-07-31T08:11:06Z</time>
      </trkpt>
      <trkpt lat="42.43238" lon="0.02663">
        <ele>943.4</ele>
        <time>2016-07-31T08:11:08Z</time>
      </trkpt>
      <trkpt lat="42.43236" lon="0.02658">
        <ele>944.8</ele>
        <time>2016-07-31T08:11:10Z</time>
      </trkpt>
      <trkpt lat="42.43233" lon="0.02653">
        <ele>946.5</ele>
        <time>2016-07-31T08:11:12Z</time>
      </trkpt>
      <trkpt lat="42.4323" lon="0.02648">
        <ele>948</ele>
        <time>2016-07-31T08:11:14Z</time>
      </trkpt>
      <trkpt lat="42.43228" lon="0.02645">
        <ele>948.9</ele>
        <time>2016-07-31T08:11:15Z</time>
      </trkpt>
      <trkpt lat="42.43226" lon="0.02642">
        <ele>949.7</ele>
        <time>2016-07-31T08:11:16Z</time>
      </trkpt>
      <trkpt lat="42.43224" lon="0.02639">
        <ele>950.3</ele>
        <time>2016-07-31T08:11:17Z</time>
      </trkpt>
      <trkpt lat="42.43221" lon="0.02635">
        <ele>951.1</ele>
        <time>2016-07-31T08:11:19Z</time>
      </trkpt>
      <trkpt lat="42.43216" lon="0.02632">
        <ele>951.1</ele>
        <time>2016-07-31T08:11:21Z</time>
      </trkpt>
      <trkpt lat="42.43213" lon="0.0263">
        <ele>951</ele>
        <time>2016-07-31T08:11:22Z</time>
      </trkpt>
      <trkpt lat="42.43211" lon="0.02629">
        <ele>951</ele>
        <time>2016-07-31T08:11:23Z</time>
      </trkpt>
      <trkpt lat="42.43206" lon="0.02626">
        <ele>950.6</ele>
        <time>2016-07-31T08:11:25Z</time>
      </trkpt>
      <trkpt lat="42.43202" lon="0.02623">
        <ele>949.8</ele>
        <time>2016-07-31T08:11:27Z</time>
      </trkpt>
      <trkpt lat="42.43198" lon="0.02619">
        <ele>949.3</ele>
        <time>2016-07-31T08:11:29Z</time>
      </trkpt>
      <trkpt lat="42.43194" lon="0.02615">
        <ele>948.9</ele>
        <time>2016-07-31T08:11:31Z</time>
      </trkpt>
      <trkpt lat="42.4319" lon="0.02612">
        <ele>948.2</ele>
        <time>2016-07-31T08:11:33Z</time>
      </trkpt>
      <trkpt lat="42.43185" lon="0.02609">
        <ele>947</ele>
        <time>2016-07-31T08:11:35Z</time>
      </trkpt>
      <trkpt lat="42.43181" lon="0.02607">
        <ele>945.5</ele>
        <time>2016-07-31T08:11:37Z</time>
      </trkpt>
      <trkpt lat="42.43176" lon="0.02606">
        <ele>944</ele>
        <time>2016-07-31T08:11:39Z</time>
      </trkpt>
      <trkpt lat="42.43172" lon="0.02604">
        <ele>942.8</ele>
        <time>2016-07-31T08:11:41Z</time>
      </trkpt>
      <trkpt lat="42.43168" lon="0.02601">
        <ele>941.8</ele>
        <time>2016-07-31T08:11:43Z</time>
      </trkpt>
      <trkpt lat="42.43165" lon="0.02598">
        <ele>941.6</ele>
        <time>2016-07-31T08:11:45Z</time>
      </trkpt>
      <trkpt lat="42.4316" lon="0.02595">
        <ele>940.7</ele>
        <time>2016-07-31T08:11:47Z</time>
      </trkpt>
      <trkpt lat="42.43156" lon="0.02592">
        <ele>939.9</ele>
        <time>2016-07-31T08:11:49Z</time>
      </trkpt>
      <trkpt lat="42.43152" lon="0.02589">
        <ele>939.2</ele>
        <time>2016-07-31T08:11:51Z</time>
      </trkpt>
      <trkpt lat="42.43147" lon="0.02587">
        <ele>937.8</ele>
        <time>2016-07-31T08:11:53Z</time>
      </trkpt>
      <trkpt lat="42.43143" lon="0.02585">
        <ele>936.3</ele>
        <time>2016-07-31T08:11:55Z</time>
      </trkpt>
      <trkpt lat="42.43138" lon="0.02583">
        <ele>935.2</ele>
        <time>2016-07-31T08:11:57Z</time>
      </trkpt>
      <trkpt lat="42.43136" lon="0.02581">
        <ele>934.6</ele>
        <time>2016-07-31T08:11:58Z</time>
      </trkpt>
      <trkpt lat="42.43133" lon="0.0258">
        <ele>934</ele>
        <time>2016-07-31T08:11:59Z</time>
      </trkpt>
      <trkpt lat="42.43128" lon="0.02577">
        <ele>932.8</ele>
        <time>2016-07-31T08:12:01Z</time>
      </trkpt>
      <trkpt lat="42.43124" lon="0.02574">
        <ele>932.4</ele>
        <time>2016-07-31T08:12:03Z</time>
      </trkpt>
      <trkpt lat="42.43121" lon="0.02572">
        <ele>932.4</ele>
        <time>2016-07-31T08:12:04Z</time>
      </trkpt>
      <trkpt lat="42.43117" lon="0.02569">
        <ele>932.5</ele>
        <time>2016-07-31T08:12:06Z</time>
      </trkpt>
      <trkpt lat="42.43113" lon="0.02564">
        <ele>932.8</ele>
        <time>2016-07-31T08:12:08Z</time>
      </trkpt>
      <trkpt lat="42.4311" lon="0.02562">
        <ele>932.9</ele>
        <time>2016-07-31T08:12:09Z</time>
      </trkpt>
      <trkpt lat="42.43106" lon="0.02557">
        <ele>933.1</ele>
        <time>2016-07-31T08:12:11Z</time>
      </trkpt>
      <trkpt lat="42.43103" lon="0.02552">
        <ele>933.2</ele>
        <time>2016-07-31T08:12:13Z</time>
      </trkpt>
      <trkpt lat="42.43101" lon="0.02549">
        <ele>933.4</ele>
        <time>2016-07-31T08:12:14Z</time>
      </trkpt>
      <trkpt lat="42.43099" lon="0.02546">
        <ele>933.6</ele>
        <time>2016-07-31T08:12:15Z</time>
      </trkpt>
      <trkpt lat="42.43098" lon="0.02543">
        <ele>933.9</ele>
        <time>2016-07-31T08:12:16Z</time>
      </trkpt>
      <trkpt lat="42.43096" lon="0.02539">
        <ele>934</ele>
        <time>2016-07-31T08:12:17Z</time>
      </trkpt>
      <trkpt lat="42.43095" lon="0.02536">
        <ele>934</ele>
        <time>2016-07-31T08:12:18Z</time>
      </trkpt>
      <trkpt lat="42.43093" lon="0.02533">
        <ele>934</ele>
        <time>2016-07-31T08:12:19Z</time>
      </trkpt>
      <trkpt lat="42.43091" lon="0.0253">
        <ele>934</ele>
        <time>2016-07-31T08:12:20Z</time>
      </trkpt>
      <trkpt lat="42.4309" lon="0.02526">
        <ele>934.2</ele>
        <time>2016-07-31T08:12:21Z</time>
      </trkpt>
      <trkpt lat="42.43088" lon="0.02522">
        <ele>934.4</ele>
        <time>2016-07-31T08:12:22Z</time>
      </trkpt>
      <trkpt lat="42.43087" lon="0.02519">
        <ele>934.8</ele>
        <time>2016-07-31T08:12:23Z</time>
      </trkpt>
      <trkpt lat="42.43086" lon="0.02515">
        <ele>935.1</ele>
        <time>2016-07-31T08:12:24Z</time>
      </trkpt>
      <trkpt lat="42.43084" lon="0.02511">
        <ele>935.4</ele>
        <time>2016-07-31T08:12:25Z</time>
      </trkpt>
      <trkpt lat="42.43083" lon="0.02507">
        <ele>935.7</ele>
        <time>2016-07-31T08:12:26Z</time>
      </trkpt>
      <trkpt lat="42.43081" lon="0.02504">
        <ele>935.9</ele>
        <time>2016-07-31T08:12:27Z</time>
      </trkpt>
      <trkpt lat="42.43079" lon="0.025">
        <ele>936.3</ele>
        <time>2016-07-31T08:12:28Z</time>
      </trkpt>
      <trkpt lat="42.43078" lon="0.02496">
        <ele>936.6</ele>
        <time>2016-07-31T08:12:29Z</time>
      </trkpt>
      <trkpt lat="42.43076" lon="0.02492">
        <ele>936.9</ele>
        <time>2016-07-31T08:12:30Z</time>
      </trkpt>
      <trkpt lat="42.43074" lon="0.02489">
        <ele>937.2</ele>
        <time>2016-07-31T08:12:31Z</time>
      </trkpt>
      <trkpt lat="42.43073" lon="0.02485">
        <ele>937.7</ele>
        <time>2016-07-31T08:12:32Z</time>
      </trkpt>
      <trkpt lat="42.43072" lon="0.02481">
        <ele>938.6</ele>
        <time>2016-07-31T08:12:33Z</time>
      </trkpt>
      <trkpt lat="42.43071" lon="0.02476">
        <ele>939.6</ele>
        <time>2016-07-31T08:12:34Z</time>
      </trkpt>
      <trkpt lat="42.43071" lon="0.02472">
        <ele>940.8</ele>
        <time>2016-07-31T08:12:35Z</time>
      </trkpt>
      <trkpt lat="42.43071" lon="0.02467">
        <ele>942.1</ele>
        <time>2016-07-31T08:12:36Z</time>
      </trkpt>
      <trkpt lat="42.43071" lon="0.02462">
        <ele>943.5</ele>
        <time>2016-07-31T08:12:37Z</time>
      </trkpt>
      <trkpt lat="42.43072" lon="0.02458">
        <ele>944.9</ele>
        <time>2016-07-31T08:12:38Z</time>
      </trkpt>
      <trkpt lat="42.43072" lon="0.02453">
        <ele>946.4</ele>
        <time>2016-07-31T08:12:39Z</time>
      </trkpt>
      <trkpt lat="42.43073" lon="0.02448">
        <ele>948.1</ele>
        <time>2016-07-31T08:12:40Z</time>
      </trkpt>
      <trkpt lat="42.43073" lon="0.02443">
        <ele>949.6</ele>
        <time>2016-07-31T08:12:41Z</time>
      </trkpt>
      <trkpt lat="42.43074" lon="0.02438">
        <ele>951.1</ele>
        <time>2016-07-31T08:12:42Z</time>
      </trkpt>
      <trkpt lat="42.43074" lon="0.02434">
        <ele>952.5</ele>
        <time>2016-07-31T08:12:43Z</time>
      </trkpt>
      <trkpt lat="42.43075" lon="0.02429">
        <ele>953.8</ele>
        <time>2016-07-31T08:12:44Z</time>
      </trkpt>
      <trkpt lat="42.43075" lon="0.02424">
        <ele>955.1</ele>
        <time>2016-07-31T08:12:45Z</time>
      </trkpt>
      <trkpt lat="42.43074" lon="0.02419">
        <ele>956.4</ele>
        <time>2016-07-31T08:12:46Z</time>
      </trkpt>
      <trkpt lat="42.43073" lon="0.02414">
        <ele>957.6</ele>
        <time>2016-07-31T08:12:47Z</time>
      </trkpt>
      <trkpt lat="42.43072" lon="0.02409">
        <ele>958.8</ele>
        <time>2016-07-31T08:12:48Z</time>
      </trkpt>
      <trkpt lat="42.43071" lon="0.02404">
        <ele>960</ele>
        <time>2016-07-31T08:12:49Z</time>
      </trkpt>
      <trkpt lat="42.4307" lon="0.02399">
        <ele>961.4</ele>
        <time>2016-07-31T08:12:50Z</time>
      </trkpt>
      <trkpt lat="42.43068" lon="0.02394">
        <ele>962.6</ele>
        <time>2016-07-31T08:12:51Z</time>
      </trkpt>
      <trkpt lat="42.43066" lon="0.02389">
        <ele>963.8</ele>
        <time>2016-07-31T08:12:52Z</time>
      </trkpt>
      <trkpt lat="42.43064" lon="0.02385">
        <ele>965.1</ele>
        <time>2016-07-31T08:12:53Z</time>
      </trkpt>
      <trkpt lat="42.43062" lon="0.0238">
        <ele>966.4</ele>
        <time>2016-07-31T08:12:54Z</time>
      </trkpt>
      <trkpt lat="42.43059" lon="0.02375">
        <ele>967.8</ele>
        <time>2016-07-31T08:12:55Z</time>
      </trkpt>
      <trkpt lat="42.43057" lon="0.02371">
        <ele>969.3</ele>
        <time>2016-07-31T08:12:56Z</time>
      </trkpt>
      <trkpt lat="42.43055" lon="0.02367">
        <ele>970.7</ele>
        <time>2016-07-31T08:12:57Z</time>
      </trkpt>
      <trkpt lat="42.43052" lon="0.02363">
        <ele>971.9</ele>
        <time>2016-07-31T08:12:58Z</time>
      </trkpt>
      <trkpt lat="42.43049" lon="0.02359">
        <ele>973.1</ele>
        <time>2016-07-31T08:12:59Z</time>
      </trkpt>
      <trkpt lat="42.43046" lon="0.02357">
        <ele>974</ele>
        <time>2016-07-31T08:13:00Z</time>
      </trkpt>
      <trkpt lat="42.43042" lon="0.02355">
        <ele>974.6</ele>
        <time>2016-07-31T08:13:01Z</time>
      </trkpt>
      <trkpt lat="42.43038" lon="0.02353">
        <ele>974.4</ele>
        <time>2016-07-31T08:13:02Z</time>
      </trkpt>
      <trkpt lat="42.43034" lon="0.02352">
        <ele>973.9</ele>
        <time>2016-07-31T08:13:03Z</time>
      </trkpt>
      <trkpt lat="42.4303" lon="0.02351">
        <ele>973.3</ele>
        <time>2016-07-31T08:13:04Z</time>
      </trkpt>
      <trkpt lat="42.43024" lon="0.02354">
        <ele>971.4</ele>
        <time>2016-07-31T08:13:05Z</time>
      </trkpt>
      <trkpt lat="42.4302" lon="0.02354">
        <ele>970.3</ele>
        <time>2016-07-31T08:13:06Z</time>
      </trkpt>
      <trkpt lat="42.43016" lon="0.02355">
        <ele>969</ele>
        <time>2016-07-31T08:13:07Z</time>
      </trkpt>
      <trkpt lat="42.43012" lon="0.02352">
        <ele>969</ele>
        <time>2016-07-31T08:13:08Z</time>
      </trkpt>
      <trkpt lat="42.43007" lon="0.02353">
        <ele>968</ele>
        <time>2016-07-31T08:13:09Z</time>
      </trkpt>
      <trkpt lat="42.43003" lon="0.02353">
        <ele>967.2</ele>
        <time>2016-07-31T08:13:10Z</time>
      </trkpt>
      <trkpt lat="42.43" lon="0.02354">
        <ele>966</ele>
        <time>2016-07-31T08:13:11Z</time>
      </trkpt>
      <trkpt lat="42.42996" lon="0.02354">
        <ele>965</ele>
        <time>2016-07-31T08:13:12Z</time>
      </trkpt>
      <trkpt lat="42.42992" lon="0.02353">
        <ele>964.6</ele>
        <time>2016-07-31T08:13:13Z</time>
      </trkpt>
      <trkpt lat="42.42987" lon="0.02354">
        <ele>963.5</ele>
        <time>2016-07-31T08:13:14Z</time>
      </trkpt>
      <trkpt lat="42.42984" lon="0.02354">
        <ele>962.7</ele>
        <time>2016-07-31T08:13:15Z</time>
      </trkpt>
      <trkpt lat="42.4298" lon="0.02353">
        <ele>962.1</ele>
        <time>2016-07-31T08:13:16Z</time>
      </trkpt>
      <trkpt lat="42.42976" lon="0.02352">
        <ele>961.6</ele>
        <time>2016-07-31T08:13:17Z</time>
      </trkpt>
      <trkpt lat="42.42972" lon="0.02351">
        <ele>961.1</ele>
        <time>2016-07-31T08:13:18Z</time>
      </trkpt>
      <trkpt lat="42.42969" lon="0.0235">
        <ele>960.6</ele>
        <time>2016-07-31T08:13:19Z</time>
      </trkpt>
      <trkpt lat="42.42964" lon="0.02349">
        <ele>960.1</ele>
        <time>2016-07-31T08:13:20Z</time>
      </trkpt>
      <trkpt lat="42.42961" lon="0.02348">
        <ele>959.5</ele>
        <time>2016-07-31T08:13:21Z</time>
      </trkpt>
      <trkpt lat="42.42957" lon="0.02347">
        <ele>959.3</ele>
        <time>2016-07-31T08:13:22Z</time>
      </trkpt>
      <trkpt lat="42.42953" lon="0.02345">
        <ele>959.6</ele>
        <time>2016-07-31T08:13:23Z</time>
      </trkpt>
      <trkpt lat="42.4295" lon="0.02343">
        <ele>959.9</ele>
        <time>2016-07-31T08:13:24Z</time>
      </trkpt>
      <trkpt lat="42.42946" lon="0.0234">
        <ele>960.3</ele>
        <time>2016-07-31T08:13:25Z</time>
      </trkpt>
      <trkpt lat="42.42943" lon="0.02337">
        <ele>960.7</ele>
        <time>2016-07-31T08:13:26Z</time>
      </trkpt>
      <trkpt lat="42.42939" lon="0.02335">
        <ele>961</ele>
        <time>2016-07-31T08:13:27Z</time>
      </trkpt>
      <trkpt lat="42.42936" lon="0.02332">
        <ele>961.2</ele>
        <time>2016-07-31T08:13:28Z</time>
      </trkpt>
      <trkpt lat="42.42933" lon="0.02329">
        <ele>961.5</ele>
        <time>2016-07-31T08:13:29Z</time>
      </trkpt>
      <trkpt lat="42.4293" lon="0.02326">
        <ele>961.7</ele>
        <time>2016-07-31T08:13:30Z</time>
      </trkpt>
      <trkpt lat="42.42927" lon="0.02324">
        <ele>961.8</ele>
        <time>2016-07-31T08:13:31Z</time>
      </trkpt>
      <trkpt lat="42.42924" lon="0.0232">
        <ele>961.9</ele>
        <time>2016-07-31T08:13:32Z</time>
      </trkpt>
      <trkpt lat="42.42922" lon="0.02318">
        <ele>962</ele>
        <time>2016-07-31T08:13:33Z</time>
      </trkpt>
      <trkpt lat="42.42919" lon="0.02315">
        <ele>962</ele>
        <time>2016-07-31T08:13:34Z</time>
      </trkpt>
      <trkpt lat="42.42916" lon="0.02312">
        <ele>961.9</ele>
        <time>2016-07-31T08:13:35Z</time>
      </trkpt>
      <trkpt lat="42.42913" lon="0.02309">
        <ele>961.7</ele>
        <time>2016-07-31T08:13:36Z</time>
      </trkpt>
      <trkpt lat="42.4291" lon="0.02306">
        <ele>961.5</ele>
        <time>2016-07-31T08:13:37Z</time>
      </trkpt>
      <trkpt lat="42.42908" lon="0.02304">
        <ele>961.2</ele>
        <time>2016-07-31T08:13:38Z</time>
      </trkpt>
      <trkpt lat="42.42905" lon="0.02302">
        <ele>960.8</ele>
        <time>2016-07-31T08:13:39Z</time>
      </trkpt>
      <trkpt lat="42.42903" lon="0.02299">
        <ele>960.6</ele>
        <time>2016-07-31T08:13:40Z</time>
      </trkpt>
      <trkpt lat="42.429" lon="0.02296">
        <ele>960.3</ele>
        <time>2016-07-31T08:13:41Z</time>
      </trkpt>
      <trkpt lat="42.42898" lon="0.02293">
        <ele>960</ele>
        <time>2016-07-31T08:13:42Z</time>
      </trkpt>
      <trkpt lat="42.42896" lon="0.0229">
        <ele>960</ele>
        <time>2016-07-31T08:13:43Z</time>
      </trkpt>
      <trkpt lat="42.42894" lon="0.02286">
        <ele>960.3</ele>
        <time>2016-07-31T08:13:44Z</time>
      </trkpt>
      <trkpt lat="42.42892" lon="0.02283">
        <ele>960.5</ele>
        <time>2016-07-31T08:13:45Z</time>
      </trkpt>
      <trkpt lat="42.4289" lon="0.0228">
        <ele>960.6</ele>
        <time>2016-07-31T08:13:46Z</time>
      </trkpt>
      <trkpt lat="42.42887" lon="0.02277">
        <ele>960.7</ele>
        <time>2016-07-31T08:13:47Z</time>
      </trkpt>
      <trkpt lat="42.42885" lon="0.02274">
        <ele>960.8</ele>
        <time>2016-07-31T08:13:48Z</time>
      </trkpt>
      <trkpt lat="42.42883" lon="0.02271">
        <ele>960.9</ele>
        <time>2016-07-31T08:13:49Z</time>
      </trkpt>
      <trkpt lat="42.42881" lon="0.02267">
        <ele>961.1</ele>
        <time>2016-07-31T08:13:50Z</time>
      </trkpt>
      <trkpt lat="42.42878" lon="0.02264">
        <ele>961.3</ele>
        <time>2016-07-31T08:13:51Z</time>
      </trkpt>
      <trkpt lat="42.42876" lon="0.0226">
        <ele>961.6</ele>
        <time>2016-07-31T08:13:52Z</time>
      </trkpt>
      <trkpt lat="42.42874" lon="0.02256">
        <ele>962.2</ele>
        <time>2016-07-31T08:13:53Z</time>
      </trkpt>
      <trkpt lat="42.42872" lon="0.02252">
        <ele>963.1</ele>
        <time>2016-07-31T08:13:54Z</time>
      </trkpt>
      <trkpt lat="42.42871" lon="0.02248">
        <ele>963.9</ele>
        <time>2016-07-31T08:13:55Z</time>
      </trkpt>
      <trkpt lat="42.42869" lon="0.02244">
        <ele>964.8</ele>
        <time>2016-07-31T08:13:56Z</time>
      </trkpt>
      <trkpt lat="42.42867" lon="0.02241">
        <ele>965.6</ele>
        <time>2016-07-31T08:13:57Z</time>
      </trkpt>
      <trkpt lat="42.42865" lon="0.02237">
        <ele>966.2</ele>
        <time>2016-07-31T08:13:58Z</time>
      </trkpt>
      <trkpt lat="42.42863" lon="0.02233">
        <ele>966.9</ele>
        <time>2016-07-31T08:13:59Z</time>
      </trkpt>
      <trkpt lat="42.42861" lon="0.0223">
        <ele>967.5</ele>
        <time>2016-07-31T08:14:00Z</time>
      </trkpt>
      <trkpt lat="42.42859" lon="0.02226">
        <ele>968.1</ele>
        <time>2016-07-31T08:14:01Z</time>
      </trkpt>
      <trkpt lat="42.42857" lon="0.02222">
        <ele>968.6</ele>
        <time>2016-07-31T08:14:02Z</time>
      </trkpt>
      <trkpt lat="42.42854" lon="0.02218">
        <ele>969.1</ele>
        <time>2016-07-31T08:14:03Z</time>
      </trkpt>
      <trkpt lat="42.42853" lon="0.02215">
        <ele>969.5</ele>
        <time>2016-07-31T08:14:04Z</time>
      </trkpt>
      <trkpt lat="42.42851" lon="0.02211">
        <ele>969.9</ele>
        <time>2016-07-31T08:14:05Z</time>
      </trkpt>
      <trkpt lat="42.42849" lon="0.02208">
        <ele>970.3</ele>
        <time>2016-07-31T08:14:06Z</time>
      </trkpt>
      <trkpt lat="42.42847" lon="0.02204">
        <ele>970.9</ele>
        <time>2016-07-31T08:14:07Z</time>
      </trkpt>
      <trkpt lat="42.42845" lon="0.02202">
        <ele>971.2</ele>
        <time>2016-07-31T08:14:08Z</time>
      </trkpt>
      <trkpt lat="42.42842" lon="0.02199">
        <ele>971.4</ele>
        <time>2016-07-31T08:14:09Z</time>
      </trkpt>
      <trkpt lat="42.4284" lon="0.02196">
        <ele>971.6</ele>
        <time>2016-07-31T08:14:10Z</time>
      </trkpt>
      <trkpt lat="42.42837" lon="0.02194">
        <ele>971.7</ele>
        <time>2016-07-31T08:14:11Z</time>
      </trkpt>
      <trkpt lat="42.42834" lon="0.02191">
        <ele>971.7</ele>
        <time>2016-07-31T08:14:12Z</time>
      </trkpt>
      <trkpt lat="42.42832" lon="0.02189">
        <ele>971.7</ele>
        <time>2016-07-31T08:14:13Z</time>
      </trkpt>
      <trkpt lat="42.42829" lon="0.02187">
        <ele>971.6</ele>
        <time>2016-07-31T08:14:14Z</time>
      </trkpt>
      <trkpt lat="42.42826" lon="0.02185">
        <ele>971.4</ele>
        <time>2016-07-31T08:14:15Z</time>
      </trkpt>
      <trkpt lat="42.42823" lon="0.02183">
        <ele>971.2</ele>
        <time>2016-07-31T08:14:16Z</time>
      </trkpt>
      <trkpt lat="42.4282" lon="0.02181">
        <ele>970.9</ele>
        <time>2016-07-31T08:14:17Z</time>
      </trkpt>
      <trkpt lat="42.42817" lon="0.02179">
        <ele>970.7</ele>
        <time>2016-07-31T08:14:18Z</time>
      </trkpt>
      <trkpt lat="42.42815" lon="0.02176">
        <ele>970.5</ele>
        <time>2016-07-31T08:14:19Z</time>
      </trkpt>
      <trkpt lat="42.42812" lon="0.02174">
        <ele>970.2</ele>
        <time>2016-07-31T08:14:20Z</time>
      </trkpt>
      <trkpt lat="42.42809" lon="0.02172">
        <ele>970</ele>
        <time>2016-07-31T08:14:21Z</time>
      </trkpt>
      <trkpt lat="42.42807" lon="0.0217">
        <ele>969.6</ele>
        <time>2016-07-31T08:14:22Z</time>
      </trkpt>
      <trkpt lat="42.42804" lon="0.02168">
        <ele>969.3</ele>
        <time>2016-07-31T08:14:23Z</time>
      </trkpt>
      <trkpt lat="42.42802" lon="0.02166">
        <ele>968.9</ele>
        <time>2016-07-31T08:14:24Z</time>
      </trkpt>
      <trkpt lat="42.428" lon="0.02164">
        <ele>968.6</ele>
        <time>2016-07-31T08:14:25Z</time>
      </trkpt>
      <trkpt lat="42.42798" lon="0.02161">
        <ele>968.3</ele>
        <time>2016-07-31T08:14:26Z</time>
      </trkpt>
      <trkpt lat="42.42796" lon="0.02158">
        <ele>968</ele>
        <time>2016-07-31T08:14:27Z</time>
      </trkpt>
      <trkpt lat="42.42794" lon="0.02155">
        <ele>967.7</ele>
        <time>2016-07-31T08:14:28Z</time>
      </trkpt>
      <trkpt lat="42.42792" lon="0.02152">
        <ele>967.4</ele>
        <time>2016-07-31T08:14:29Z</time>
      </trkpt>
      <trkpt lat="42.4279" lon="0.02149">
        <ele>967.8</ele>
        <time>2016-07-31T08:14:30Z</time>
      </trkpt>
      <trkpt lat="42.42789" lon="0.02146">
        <ele>968.3</ele>
        <time>2016-07-31T08:14:31Z</time>
      </trkpt>
      <trkpt lat="42.42787" lon="0.02143">
        <ele>968.7</ele>
        <time>2016-07-31T08:14:32Z</time>
      </trkpt>
      <trkpt lat="42.42786" lon="0.02139">
        <ele>969.1</ele>
        <time>2016-07-31T08:14:33Z</time>
      </trkpt>
      <trkpt lat="42.42785" lon="0.02136">
        <ele>969.5</ele>
        <time>2016-07-31T08:14:34Z</time>
      </trkpt>
      <trkpt lat="42.42783" lon="0.02132">
        <ele>969.8</ele>
        <time>2016-07-31T08:14:35Z</time>
      </trkpt>
      <trkpt lat="42.42782" lon="0.02129">
        <ele>970.2</ele>
        <time>2016-07-31T08:14:36Z</time>
      </trkpt>
      <trkpt lat="42.42781" lon="0.02125">
        <ele>970.5</ele>
        <time>2016-07-31T08:14:37Z</time>
      </trkpt>
      <trkpt lat="42.42779" lon="0.02122">
        <ele>971.4</ele>
        <time>2016-07-31T08:14:38Z</time>
      </trkpt>
      <trkpt lat="42.42778" lon="0.02118">
        <ele>972.2</ele>
        <time>2016-07-31T08:14:39Z</time>
      </trkpt>
      <trkpt lat="42.42776" lon="0.02115">
        <ele>973.1</ele>
        <time>2016-07-31T08:14:40Z</time>
      </trkpt>
      <trkpt lat="42.42775" lon="0.02111">
        <ele>973.9</ele>
        <time>2016-07-31T08:14:41Z</time>
      </trkpt>
      <trkpt lat="42.42773" lon="0.02108">
        <ele>974.7</ele>
        <time>2016-07-31T08:14:42Z</time>
      </trkpt>
      <trkpt lat="42.42771" lon="0.02105">
        <ele>975.3</ele>
        <time>2016-07-31T08:14:43Z</time>
      </trkpt>
      <trkpt lat="42.4277" lon="0.02102">
        <ele>976</ele>
        <time>2016-07-31T08:14:44Z</time>
      </trkpt>
      <trkpt lat="42.42768" lon="0.02098">
        <ele>976.6</ele>
        <time>2016-07-31T08:14:45Z</time>
      </trkpt>
      <trkpt lat="42.42766" lon="0.02095">
        <ele>977.1</ele>
        <time>2016-07-31T08:14:46Z</time>
      </trkpt>
      <trkpt lat="42.42765" lon="0.02092">
        <ele>977.7</ele>
        <time>2016-07-31T08:14:47Z</time>
      </trkpt>
      <trkpt lat="42.42763" lon="0.02088">
        <ele>978.3</ele>
        <time>2016-07-31T08:14:48Z</time>
      </trkpt>
      <trkpt lat="42.42762" lon="0.02085">
        <ele>978.8</ele>
        <time>2016-07-31T08:14:49Z</time>
      </trkpt>
      <trkpt lat="42.4276" lon="0.02082">
        <ele>979.2</ele>
        <time>2016-07-31T08:14:50Z</time>
      </trkpt>
      <trkpt lat="42.42758" lon="0.02078">
        <ele>979.5</ele>
        <time>2016-07-31T08:14:51Z</time>
      </trkpt>
      <trkpt lat="42.42756" lon="0.02075">
        <ele>979.8</ele>
        <time>2016-07-31T08:14:52Z</time>
      </trkpt>
      <trkpt lat="42.42754" lon="0.02072">
        <ele>980.1</ele>
        <time>2016-07-31T08:14:53Z</time>
      </trkpt>
      <trkpt lat="42.42752" lon="0.02069">
        <ele>980.3</ele>
        <time>2016-07-31T08:14:54Z</time>
      </trkpt>
      <trkpt lat="42.4275" lon="0.02066">
        <ele>980.6</ele>
        <time>2016-07-31T08:14:55Z</time>
      </trkpt>
      <trkpt lat="42.42749" lon="0.02062">
        <ele>980.8</ele>
        <time>2016-07-31T08:14:56Z</time>
      </trkpt>
      <trkpt lat="42.42748" lon="0.02058">
        <ele>981.1</ele>
        <time>2016-07-31T08:14:57Z</time>
      </trkpt>
      <trkpt lat="42.42745" lon="0.02052">
        <ele>981.3</ele>
        <time>2016-07-31T08:14:59Z</time>
      </trkpt>
      <trkpt lat="42.42744" lon="0.0205">
        <ele>981.3</ele>
        <time>2016-07-31T08:15:00Z</time>
      </trkpt>
      <trkpt lat="42.42742" lon="0.02047">
        <ele>981.2</ele>
        <time>2016-07-31T08:15:01Z</time>
      </trkpt>
      <trkpt lat="42.4274" lon="0.02044">
        <ele>981.1</ele>
        <time>2016-07-31T08:15:02Z</time>
      </trkpt>
      <trkpt lat="42.42738" lon="0.02041">
        <ele>981</ele>
        <time>2016-07-31T08:15:03Z</time>
      </trkpt>
      <trkpt lat="42.42735" lon="0.02038">
        <ele>981.3</ele>
        <time>2016-07-31T08:15:04Z</time>
      </trkpt>
      <trkpt lat="42.42733" lon="0.02035">
        <ele>981.6</ele>
        <time>2016-07-31T08:15:05Z</time>
      </trkpt>
      <trkpt lat="42.42731" lon="0.02032">
        <ele>981.9</ele>
        <time>2016-07-31T08:15:06Z</time>
      </trkpt>
      <trkpt lat="42.42729" lon="0.0203">
        <ele>982.1</ele>
        <time>2016-07-31T08:15:07Z</time>
      </trkpt>
      <trkpt lat="42.42727" lon="0.02027">
        <ele>982.2</ele>
        <time>2016-07-31T08:15:08Z</time>
      </trkpt>
      <trkpt lat="42.42725" lon="0.02024">
        <ele>982.4</ele>
        <time>2016-07-31T08:15:09Z</time>
      </trkpt>
      <trkpt lat="42.42723" lon="0.02021">
        <ele>982.7</ele>
        <time>2016-07-31T08:15:10Z</time>
      </trkpt>
      <trkpt lat="42.42721" lon="0.02018">
        <ele>983</ele>
        <time>2016-07-31T08:15:11Z</time>
      </trkpt>
      <trkpt lat="42.42719" lon="0.02015">
        <ele>983.3</ele>
        <time>2016-07-31T08:15:12Z</time>
      </trkpt>
      <trkpt lat="42.42717" lon="0.02012">
        <ele>983.5</ele>
        <time>2016-07-31T08:15:13Z</time>
      </trkpt>
      <trkpt lat="42.42714" lon="0.02006">
        <ele>984</ele>
        <time>2016-07-31T08:15:15Z</time>
      </trkpt>
      <trkpt lat="42.42712" lon="0.02003">
        <ele>984.1</ele>
        <time>2016-07-31T08:15:16Z</time>
      </trkpt>
      <trkpt lat="42.4271" lon="0.02">
        <ele>984.3</ele>
        <time>2016-07-31T08:15:17Z</time>
      </trkpt>
      <trkpt lat="42.42708" lon="0.01997">
        <ele>984.5</ele>
        <time>2016-07-31T08:15:18Z</time>
      </trkpt>
      <trkpt lat="42.42706" lon="0.01994">
        <ele>985.1</ele>
        <time>2016-07-31T08:15:19Z</time>
      </trkpt>
      <trkpt lat="42.42704" lon="0.01991">
        <ele>985.7</ele>
        <time>2016-07-31T08:15:20Z</time>
      </trkpt>
      <trkpt lat="42.42702" lon="0.01988">
        <ele>986.2</ele>
        <time>2016-07-31T08:15:21Z</time>
      </trkpt>
      <trkpt lat="42.427" lon="0.01985">
        <ele>986.7</ele>
        <time>2016-07-31T08:15:22Z</time>
      </trkpt>
      <trkpt lat="42.42698" lon="0.01981">
        <ele>987.1</ele>
        <time>2016-07-31T08:15:23Z</time>
      </trkpt>
      <trkpt lat="42.42696" lon="0.01978">
        <ele>987.4</ele>
        <time>2016-07-31T08:15:24Z</time>
      </trkpt>
      <trkpt lat="42.42694" lon="0.01975">
        <ele>987.7</ele>
        <time>2016-07-31T08:15:25Z</time>
      </trkpt>
      <trkpt lat="42.42692" lon="0.01972">
        <ele>987.9</ele>
        <time>2016-07-31T08:15:26Z</time>
      </trkpt>
      <trkpt lat="42.42689" lon="0.01969">
        <ele>988</ele>
        <time>2016-07-31T08:15:27Z</time>
      </trkpt>
      <trkpt lat="42.42687" lon="0.01966">
        <ele>988.1</ele>
        <time>2016-07-31T08:15:28Z</time>
      </trkpt>
      <trkpt lat="42.42684" lon="0.01963">
        <ele>988</ele>
        <time>2016-07-31T08:15:29Z</time>
      </trkpt>
      <trkpt lat="42.42681" lon="0.0196">
        <ele>987.9</ele>
        <time>2016-07-31T08:15:30Z</time>
      </trkpt>
      <trkpt lat="42.42678" lon="0.01958">
        <ele>987.6</ele>
        <time>2016-07-31T08:15:31Z</time>
      </trkpt>
      <trkpt lat="42.42675" lon="0.01955">
        <ele>987.5</ele>
        <time>2016-07-31T08:15:32Z</time>
      </trkpt>
      <trkpt lat="42.42672" lon="0.01952">
        <ele>987.4</ele>
        <time>2016-07-31T08:15:33Z</time>
      </trkpt>
      <trkpt lat="42.42669" lon="0.01949">
        <ele>987.3</ele>
        <time>2016-07-31T08:15:34Z</time>
      </trkpt>
      <trkpt lat="42.42666" lon="0.01947">
        <ele>987</ele>
        <time>2016-07-31T08:15:35Z</time>
      </trkpt>
      <trkpt lat="42.42662" lon="0.01945">
        <ele>986.8</ele>
        <time>2016-07-31T08:15:36Z</time>
      </trkpt>
      <trkpt lat="42.42659" lon="0.01943">
        <ele>986.6</ele>
        <time>2016-07-31T08:15:37Z</time>
      </trkpt>
      <trkpt lat="42.42655" lon="0.01941">
        <ele>986.3</ele>
        <time>2016-07-31T08:15:38Z</time>
      </trkpt>
      <trkpt lat="42.42652" lon="0.0194">
        <ele>985.9</ele>
        <time>2016-07-31T08:15:39Z</time>
      </trkpt>
      <trkpt lat="42.42648" lon="0.01938">
        <ele>985.6</ele>
        <time>2016-07-31T08:15:40Z</time>
      </trkpt>
      <trkpt lat="42.42644" lon="0.01937">
        <ele>985.2</ele>
        <time>2016-07-31T08:15:41Z</time>
      </trkpt>
      <trkpt lat="42.4264" lon="0.01935">
        <ele>984.9</ele>
        <time>2016-07-31T08:15:42Z</time>
      </trkpt>
      <trkpt lat="42.42636" lon="0.01932">
        <ele>984.7</ele>
        <time>2016-07-31T08:15:43Z</time>
      </trkpt>
      <trkpt lat="42.42633" lon="0.01929">
        <ele>984.6</ele>
        <time>2016-07-31T08:15:44Z</time>
      </trkpt>
      <trkpt lat="42.4263" lon="0.01925">
        <ele>984.6</ele>
        <time>2016-07-31T08:15:45Z</time>
      </trkpt>
      <trkpt lat="42.42627" lon="0.01922">
        <ele>984.6</ele>
        <time>2016-07-31T08:15:46Z</time>
      </trkpt>
      <trkpt lat="42.42624" lon="0.01919">
        <ele>984.9</ele>
        <time>2016-07-31T08:15:47Z</time>
      </trkpt>
      <trkpt lat="42.42621" lon="0.01916">
        <ele>985.5</ele>
        <time>2016-07-31T08:15:48Z</time>
      </trkpt>
      <trkpt lat="42.42618" lon="0.01912">
        <ele>986</ele>
        <time>2016-07-31T08:15:49Z</time>
      </trkpt>
      <trkpt lat="42.42615" lon="0.01909">
        <ele>986.5</ele>
        <time>2016-07-31T08:15:50Z</time>
      </trkpt>
      <trkpt lat="42.42612" lon="0.01906">
        <ele>987</ele>
        <time>2016-07-31T08:15:51Z</time>
      </trkpt>
      <trkpt lat="42.42609" lon="0.01903">
        <ele>987.5</ele>
        <time>2016-07-31T08:15:52Z</time>
      </trkpt>
      <trkpt lat="42.42606" lon="0.019">
        <ele>987.9</ele>
        <time>2016-07-31T08:15:53Z</time>
      </trkpt>
      <trkpt lat="42.42604" lon="0.01897">
        <ele>988.2</ele>
        <time>2016-07-31T08:15:54Z</time>
      </trkpt>
      <trkpt lat="42.42601" lon="0.01895">
        <ele>988.4</ele>
        <time>2016-07-31T08:15:55Z</time>
      </trkpt>
      <trkpt lat="42.42598" lon="0.01892">
        <ele>988.7</ele>
        <time>2016-07-31T08:15:56Z</time>
      </trkpt>
      <trkpt lat="42.42596" lon="0.01889">
        <ele>988.9</ele>
        <time>2016-07-31T08:15:57Z</time>
      </trkpt>
      <trkpt lat="42.42594" lon="0.01886">
        <ele>989.1</ele>
        <time>2016-07-31T08:15:58Z</time>
      </trkpt>
      <trkpt lat="42.42591" lon="0.01883">
        <ele>989.3</ele>
        <time>2016-07-31T08:15:59Z</time>
      </trkpt>
      <trkpt lat="42.42589" lon="0.01879">
        <ele>989.4</ele>
        <time>2016-07-31T08:16:00Z</time>
      </trkpt>
      <trkpt lat="42.42587" lon="0.01876">
        <ele>989.5</ele>
        <time>2016-07-31T08:16:01Z</time>
      </trkpt>
      <trkpt lat="42.42584" lon="0.01873">
        <ele>989.7</ele>
        <time>2016-07-31T08:16:02Z</time>
      </trkpt>
      <trkpt lat="42.42582" lon="0.0187">
        <ele>989.9</ele>
        <time>2016-07-31T08:16:03Z</time>
      </trkpt>
      <trkpt lat="42.4258" lon="0.01867">
        <ele>990.1</ele>
        <time>2016-07-31T08:16:04Z</time>
      </trkpt>
      <trkpt lat="42.42577" lon="0.01864">
        <ele>990.3</ele>
        <time>2016-07-31T08:16:05Z</time>
      </trkpt>
      <trkpt lat="42.42574" lon="0.01862">
        <ele>990.4</ele>
        <time>2016-07-31T08:16:06Z</time>
      </trkpt>
      <trkpt lat="42.42571" lon="0.01859">
        <ele>990.5</ele>
        <time>2016-07-31T08:16:07Z</time>
      </trkpt>
      <trkpt lat="42.42569" lon="0.01858">
        <ele>990.6</ele>
        <time>2016-07-31T08:16:08Z</time>
      </trkpt>
      <trkpt lat="42.42566" lon="0.01856">
        <ele>990.6</ele>
        <time>2016-07-31T08:16:09Z</time>
      </trkpt>
      <trkpt lat="42.42563" lon="0.01854">
        <ele>990.7</ele>
        <time>2016-07-31T08:16:10Z</time>
      </trkpt>
      <trkpt lat="42.4256" lon="0.01852">
        <ele>990.7</ele>
        <time>2016-07-31T08:16:11Z</time>
      </trkpt>
      <trkpt lat="42.42557" lon="0.01849">
        <ele>990.8</ele>
        <time>2016-07-31T08:16:12Z</time>
      </trkpt>
      <trkpt lat="42.42555" lon="0.01847">
        <ele>990.8</ele>
        <time>2016-07-31T08:16:13Z</time>
      </trkpt>
      <trkpt lat="42.42553" lon="0.01845">
        <ele>990.9</ele>
        <time>2016-07-31T08:16:14Z</time>
      </trkpt>
      <trkpt lat="42.4255" lon="0.01843">
        <ele>990.9</ele>
        <time>2016-07-31T08:16:15Z</time>
      </trkpt>
      <trkpt lat="42.42548" lon="0.01841">
        <ele>990.9</ele>
        <time>2016-07-31T08:16:16Z</time>
      </trkpt>
      <trkpt lat="42.42545" lon="0.01838">
        <ele>990.9</ele>
        <time>2016-07-31T08:16:17Z</time>
      </trkpt>
      <trkpt lat="42.42543" lon="0.01836">
        <ele>990.9</ele>
        <time>2016-07-31T08:16:18Z</time>
      </trkpt>
      <trkpt lat="42.42539" lon="0.01832">
        <ele>992.1</ele>
        <time>2016-07-31T08:16:20Z</time>
      </trkpt>
      <trkpt lat="42.42535" lon="0.01826">
        <ele>993.5</ele>
        <time>2016-07-31T08:16:22Z</time>
      </trkpt>
      <trkpt lat="42.42534" lon="0.01823">
        <ele>994.2</ele>
        <time>2016-07-31T08:16:23Z</time>
      </trkpt>
      <trkpt lat="42.42533" lon="0.01819">
        <ele>994.8</ele>
        <time>2016-07-31T08:16:24Z</time>
      </trkpt>
      <trkpt lat="42.42532" lon="0.01816">
        <ele>995.4</ele>
        <time>2016-07-31T08:16:25Z</time>
      </trkpt>
      <trkpt lat="42.42531" lon="0.01812">
        <ele>996</ele>
        <time>2016-07-31T08:16:26Z</time>
      </trkpt>
      <trkpt lat="42.4253" lon="0.01808">
        <ele>996.7</ele>
        <time>2016-07-31T08:16:27Z</time>
      </trkpt>
      <trkpt lat="42.42529" lon="0.01803">
        <ele>997.3</ele>
        <time>2016-07-31T08:16:28Z</time>
      </trkpt>
      <trkpt lat="42.42529" lon="0.01799">
        <ele>997.7</ele>
        <time>2016-07-31T08:16:29Z</time>
      </trkpt>
      <trkpt lat="42.42529" lon="0.01794">
        <ele>998</ele>
        <time>2016-07-31T08:16:30Z</time>
      </trkpt>
      <trkpt lat="42.42529" lon="0.01789">
        <ele>998.2</ele>
        <time>2016-07-31T08:16:31Z</time>
      </trkpt>
      <trkpt lat="42.4253" lon="0.01784">
        <ele>998.3</ele>
        <time>2016-07-31T08:16:32Z</time>
      </trkpt>
      <trkpt lat="42.4253" lon="0.01779">
        <ele>998.4</ele>
        <time>2016-07-31T08:16:33Z</time>
      </trkpt>
      <trkpt lat="42.42531" lon="0.01774">
        <ele>998.5</ele>
        <time>2016-07-31T08:16:34Z</time>
      </trkpt>
      <trkpt lat="42.42532" lon="0.01769">
        <ele>998.6</ele>
        <time>2016-07-31T08:16:35Z</time>
      </trkpt>
      <trkpt lat="42.42532" lon="0.01765">
        <ele>998.6</ele>
        <time>2016-07-31T08:16:36Z</time>
      </trkpt>
      <trkpt lat="42.42533" lon="0.0176">
        <ele>998.7</ele>
        <time>2016-07-31T08:16:37Z</time>
      </trkpt>
      <trkpt lat="42.42533" lon="0.01756">
        <ele>998.8</ele>
        <time>2016-07-31T08:16:38Z</time>
      </trkpt>
      <trkpt lat="42.42534" lon="0.01751">
        <ele>999</ele>
        <time>2016-07-31T08:16:39Z</time>
      </trkpt>
      <trkpt lat="42.42534" lon="0.01746">
        <ele>999.2</ele>
        <time>2016-07-31T08:16:40Z</time>
      </trkpt>
      <trkpt lat="42.42534" lon="0.01742">
        <ele>999.5</ele>
        <time>2016-07-31T08:16:41Z</time>
      </trkpt>
      <trkpt lat="42.42534" lon="0.01737">
        <ele>999.8</ele>
        <time>2016-07-31T08:16:42Z</time>
      </trkpt>
      <trkpt lat="42.42534" lon="0.01732">
        <ele>1000.1</ele>
        <time>2016-07-31T08:16:43Z</time>
      </trkpt>
      <trkpt lat="42.42534" lon="0.01728">
        <ele>1000.4</ele>
        <time>2016-07-31T08:16:44Z</time>
      </trkpt>
      <trkpt lat="42.42534" lon="0.01723">
        <ele>1000.7</ele>
        <time>2016-07-31T08:16:45Z</time>
      </trkpt>
      <trkpt lat="42.42534" lon="0.01719">
        <ele>1001</ele>
        <time>2016-07-31T08:16:46Z</time>
      </trkpt>
      <trkpt lat="42.42534" lon="0.01714">
        <ele>1001.3</ele>
        <time>2016-07-31T08:16:47Z</time>
      </trkpt>
      <trkpt lat="42.42534" lon="0.0171">
        <ele>1001.6</ele>
        <time>2016-07-31T08:16:48Z</time>
      </trkpt>
      <trkpt lat="42.42535" lon="0.01705">
        <ele>1001.7</ele>
        <time>2016-07-31T08:16:49Z</time>
      </trkpt>
      <trkpt lat="42.42535" lon="0.01701">
        <ele>1001.7</ele>
        <time>2016-07-31T08:16:50Z</time>
      </trkpt>
      <trkpt lat="42.42535" lon="0.01696">
        <ele>1001.8</ele>
        <time>2016-07-31T08:16:51Z</time>
      </trkpt>
      <trkpt lat="42.42534" lon="0.01692">
        <ele>1001.9</ele>
        <time>2016-07-31T08:16:52Z</time>
      </trkpt>
      <trkpt lat="42.42535" lon="0.01688">
        <ele>1001.9</ele>
        <time>2016-07-31T08:16:53Z</time>
      </trkpt>
      <trkpt lat="42.42535" lon="0.01684">
        <ele>1001.9</ele>
        <time>2016-07-31T08:16:54Z</time>
      </trkpt>
      <trkpt lat="42.42535" lon="0.0168">
        <ele>1001.8</ele>
        <time>2016-07-31T08:16:55Z</time>
      </trkpt>
      <trkpt lat="42.42536" lon="0.01675">
        <ele>1001.6</ele>
        <time>2016-07-31T08:16:56Z</time>
      </trkpt>
      <trkpt lat="42.42536" lon="0.01671">
        <ele>1001.4</ele>
        <time>2016-07-31T08:16:57Z</time>
      </trkpt>
      <trkpt lat="42.42536" lon="0.01667">
        <ele>1001.4</ele>
        <time>2016-07-31T08:16:58Z</time>
      </trkpt>
      <trkpt lat="42.42536" lon="0.01663">
        <ele>1001.5</ele>
        <time>2016-07-31T08:16:59Z</time>
      </trkpt>
      <trkpt lat="42.42536" lon="0.01658">
        <ele>1001.6</ele>
        <time>2016-07-31T08:17:00Z</time>
      </trkpt>
      <trkpt lat="42.42536" lon="0.01654">
        <ele>1001.7</ele>
        <time>2016-07-31T08:17:01Z</time>
      </trkpt>
      <trkpt lat="42.42536" lon="0.0165">
        <ele>1001.8</ele>
        <time>2016-07-31T08:17:02Z</time>
      </trkpt>
      <trkpt lat="42.42536" lon="0.01645">
        <ele>1001.9</ele>
        <time>2016-07-31T08:17:03Z</time>
      </trkpt>
      <trkpt lat="42.42536" lon="0.01641">
        <ele>1001.9</ele>
        <time>2016-07-31T08:17:04Z</time>
      </trkpt>
      <trkpt lat="42.42536" lon="0.01636">
        <ele>1001.9</ele>
        <time>2016-07-31T08:17:05Z</time>
      </trkpt>
      <trkpt lat="42.42536" lon="0.01632">
        <ele>1002</ele>
        <time>2016-07-31T08:17:06Z</time>
      </trkpt>
      <trkpt lat="42.42536" lon="0.01627">
        <ele>1002</ele>
        <time>2016-07-31T08:17:07Z</time>
      </trkpt>
      <trkpt lat="42.42536" lon="0.01623">
        <ele>1001.9</ele>
        <time>2016-07-31T08:17:08Z</time>
      </trkpt>
      <trkpt lat="42.42536" lon="0.01618">
        <ele>1001.6</ele>
        <time>2016-07-31T08:17:09Z</time>
      </trkpt>
      <trkpt lat="42.42536" lon="0.01614">
        <ele>1001.3</ele>
        <time>2016-07-31T08:17:10Z</time>
      </trkpt>
      <trkpt lat="42.42536" lon="0.01609">
        <ele>1001</ele>
        <time>2016-07-31T08:17:11Z</time>
      </trkpt>
      <trkpt lat="42.42536" lon="0.01605">
        <ele>1000.6</ele>
        <time>2016-07-31T08:17:12Z</time>
      </trkpt>
      <trkpt lat="42.42537" lon="0.016">
        <ele>1000.3</ele>
        <time>2016-07-31T08:17:13Z</time>
      </trkpt>
      <trkpt lat="42.42537" lon="0.01596">
        <ele>999.9</ele>
        <time>2016-07-31T08:17:14Z</time>
      </trkpt>
      <trkpt lat="42.42537" lon="0.01592">
        <ele>999.5</ele>
        <time>2016-07-31T08:17:15Z</time>
      </trkpt>
      <trkpt lat="42.42537" lon="0.01587">
        <ele>999.1</ele>
        <time>2016-07-31T08:17:16Z</time>
      </trkpt>
      <trkpt lat="42.42538" lon="0.01583">
        <ele>998.7</ele>
        <time>2016-07-31T08:17:17Z</time>
      </trkpt>
      <trkpt lat="42.42538" lon="0.01579">
        <ele>998.4</ele>
        <time>2016-07-31T08:17:18Z</time>
      </trkpt>
      <trkpt lat="42.42538" lon="0.01575">
        <ele>998.2</ele>
        <time>2016-07-31T08:17:19Z</time>
      </trkpt>
      <trkpt lat="42.42538" lon="0.0157">
        <ele>997.8</ele>
        <time>2016-07-31T08:17:20Z</time>
      </trkpt>
      <trkpt lat="42.42538" lon="0.01566">
        <ele>997.5</ele>
        <time>2016-07-31T08:17:21Z</time>
      </trkpt>
      <trkpt lat="42.42538" lon="0.01561">
        <ele>997.1</ele>
        <time>2016-07-31T08:17:22Z</time>
      </trkpt>
      <trkpt lat="42.42538" lon="0.01557">
        <ele>996.8</ele>
        <time>2016-07-31T08:17:23Z</time>
      </trkpt>
      <trkpt lat="42.42538" lon="0.01552">
        <ele>996.5</ele>
        <time>2016-07-31T08:17:24Z</time>
      </trkpt>
      <trkpt lat="42.42538" lon="0.01547">
        <ele>996.2</ele>
        <time>2016-07-31T08:17:25Z</time>
      </trkpt>
      <trkpt lat="42.42538" lon="0.01543">
        <ele>995.9</ele>
        <time>2016-07-31T08:17:26Z</time>
      </trkpt>
      <trkpt lat="42.42538" lon="0.01539">
        <ele>996</ele>
        <time>2016-07-31T08:17:27Z</time>
      </trkpt>
      <trkpt lat="42.42538" lon="0.01534">
        <ele>996.3</ele>
        <time>2016-07-31T08:17:28Z</time>
      </trkpt>
      <trkpt lat="42.42538" lon="0.0153">
        <ele>996.6</ele>
        <time>2016-07-31T08:17:29Z</time>
      </trkpt>
      <trkpt lat="42.42537" lon="0.01526">
        <ele>997</ele>
        <time>2016-07-31T08:17:30Z</time>
      </trkpt>
      <trkpt lat="42.42536" lon="0.01522">
        <ele>997.4</ele>
        <time>2016-07-31T08:17:31Z</time>
      </trkpt>
      <trkpt lat="42.42535" lon="0.01518">
        <ele>997.9</ele>
        <time>2016-07-31T08:17:32Z</time>
      </trkpt>
      <trkpt lat="42.42533" lon="0.01514">
        <ele>998.4</ele>
        <time>2016-07-31T08:17:33Z</time>
      </trkpt>
      <trkpt lat="42.42532" lon="0.01511">
        <ele>998.8</ele>
        <time>2016-07-31T08:17:34Z</time>
      </trkpt>
      <trkpt lat="42.4253" lon="0.01507">
        <ele>999.3</ele>
        <time>2016-07-31T08:17:35Z</time>
      </trkpt>
      <trkpt lat="42.42528" lon="0.01503">
        <ele>999.8</ele>
        <time>2016-07-31T08:17:36Z</time>
      </trkpt>
      <trkpt lat="42.42526" lon="0.01499">
        <ele>1000.2</ele>
        <time>2016-07-31T08:17:37Z</time>
      </trkpt>
      <trkpt lat="42.42525" lon="0.01495">
        <ele>1000.6</ele>
        <time>2016-07-31T08:17:38Z</time>
      </trkpt>
      <trkpt lat="42.42523" lon="0.01491">
        <ele>1001</ele>
        <time>2016-07-31T08:17:39Z</time>
      </trkpt>
      <trkpt lat="42.42521" lon="0.01487">
        <ele>1001.3</ele>
        <time>2016-07-31T08:17:40Z</time>
      </trkpt>
      <trkpt lat="42.42519" lon="0.01484">
        <ele>1001.7</ele>
        <time>2016-07-31T08:17:41Z</time>
      </trkpt>
      <trkpt lat="42.42518" lon="0.01481">
        <ele>1002</ele>
        <time>2016-07-31T08:17:42Z</time>
      </trkpt>
      <trkpt lat="42.42516" lon="0.01478">
        <ele>1002.3</ele>
        <time>2016-07-31T08:17:43Z</time>
      </trkpt>
      <trkpt lat="42.42514" lon="0.01474">
        <ele>1002.5</ele>
        <time>2016-07-31T08:17:44Z</time>
      </trkpt>
      <trkpt lat="42.42512" lon="0.0147">
        <ele>1002.8</ele>
        <time>2016-07-31T08:17:45Z</time>
      </trkpt>
      <trkpt lat="42.42511" lon="0.01467">
        <ele>1003</ele>
        <time>2016-07-31T08:17:46Z</time>
      </trkpt>
      <trkpt lat="42.42509" lon="0.01463">
        <ele>1003.2</ele>
        <time>2016-07-31T08:17:47Z</time>
      </trkpt>
      <trkpt lat="42.42507" lon="0.01459">
        <ele>1003.3</ele>
        <time>2016-07-31T08:17:48Z</time>
      </trkpt>
      <trkpt lat="42.42505" lon="0.01456">
        <ele>1003.7</ele>
        <time>2016-07-31T08:17:49Z</time>
      </trkpt>
      <trkpt lat="42.42503" lon="0.01453">
        <ele>1004.2</ele>
        <time>2016-07-31T08:17:50Z</time>
      </trkpt>
      <trkpt lat="42.42501" lon="0.0145">
        <ele>1004.6</ele>
        <time>2016-07-31T08:17:51Z</time>
      </trkpt>
      <trkpt lat="42.42499" lon="0.01447">
        <ele>1005.1</ele>
        <time>2016-07-31T08:17:52Z</time>
      </trkpt>
      <trkpt lat="42.42497" lon="0.01443">
        <ele>1005.5</ele>
        <time>2016-07-31T08:17:53Z</time>
      </trkpt>
      <trkpt lat="42.42496" lon="0.0144">
        <ele>1005.9</ele>
        <time>2016-07-31T08:17:54Z</time>
      </trkpt>
      <trkpt lat="42.42494" lon="0.01437">
        <ele>1006.4</ele>
        <time>2016-07-31T08:17:55Z</time>
      </trkpt>
      <trkpt lat="42.42493" lon="0.01433">
        <ele>1006.8</ele>
        <time>2016-07-31T08:17:56Z</time>
      </trkpt>
      <trkpt lat="42.42492" lon="0.01429">
        <ele>1007.2</ele>
        <time>2016-07-31T08:17:57Z</time>
      </trkpt>
      <trkpt lat="42.42491" lon="0.01426">
        <ele>1007.6</ele>
        <time>2016-07-31T08:17:58Z</time>
      </trkpt>
      <trkpt lat="42.4249" lon="0.01421">
        <ele>1008.1</ele>
        <time>2016-07-31T08:17:59Z</time>
      </trkpt>
      <trkpt lat="42.42489" lon="0.01417">
        <ele>1008.5</ele>
        <time>2016-07-31T08:18:00Z</time>
      </trkpt>
      <trkpt lat="42.42488" lon="0.01413">
        <ele>1008.9</ele>
        <time>2016-07-31T08:18:01Z</time>
      </trkpt>
      <trkpt lat="42.42488" lon="0.01409">
        <ele>1009.3</ele>
        <time>2016-07-31T08:18:02Z</time>
      </trkpt>
      <trkpt lat="42.42488" lon="0.01404">
        <ele>1009.7</ele>
        <time>2016-07-31T08:18:03Z</time>
      </trkpt>
      <trkpt lat="42.42488" lon="0.01399">
        <ele>1010.1</ele>
        <time>2016-07-31T08:18:04Z</time>
      </trkpt>
      <trkpt lat="42.42488" lon="0.01395">
        <ele>1010.5</ele>
        <time>2016-07-31T08:18:05Z</time>
      </trkpt>
      <trkpt lat="42.42488" lon="0.0139">
        <ele>1010.9</ele>
        <time>2016-07-31T08:18:06Z</time>
      </trkpt>
      <trkpt lat="42.42489" lon="0.01385">
        <ele>1011.2</ele>
        <time>2016-07-31T08:18:07Z</time>
      </trkpt>
      <trkpt lat="42.42489" lon="0.01381">
        <ele>1011.6</ele>
        <time>2016-07-31T08:18:08Z</time>
      </trkpt>
      <trkpt lat="42.4249" lon="0.01376">
        <ele>1011.9</ele>
        <time>2016-07-31T08:18:09Z</time>
      </trkpt>
      <trkpt lat="42.42491" lon="0.01372">
        <ele>1011.9</ele>
        <time>2016-07-31T08:18:10Z</time>
      </trkpt>
      <trkpt lat="42.42491" lon="0.01368">
        <ele>1012</ele>
        <time>2016-07-31T08:18:11Z</time>
      </trkpt>
      <trkpt lat="42.42491" lon="0.01363">
        <ele>1012</ele>
        <time>2016-07-31T08:18:12Z</time>
      </trkpt>
      <trkpt lat="42.42491" lon="0.01358">
        <ele>1012</ele>
        <time>2016-07-31T08:18:13Z</time>
      </trkpt>
      <trkpt lat="42.42491" lon="0.01353">
        <ele>1012.1</ele>
        <time>2016-07-31T08:18:14Z</time>
      </trkpt>
      <trkpt lat="42.42491" lon="0.01349">
        <ele>1012.1</ele>
        <time>2016-07-31T08:18:15Z</time>
      </trkpt>
      <trkpt lat="42.42491" lon="0.01344">
        <ele>1012.2</ele>
        <time>2016-07-31T08:18:16Z</time>
      </trkpt>
      <trkpt lat="42.42491" lon="0.0134">
        <ele>1012.3</ele>
        <time>2016-07-31T08:18:17Z</time>
      </trkpt>
      <trkpt lat="42.42491" lon="0.01336">
        <ele>1012.3</ele>
        <time>2016-07-31T08:18:18Z</time>
      </trkpt>
      <trkpt lat="42.42491" lon="0.01331">
        <ele>1012.3</ele>
        <time>2016-07-31T08:18:19Z</time>
      </trkpt>
      <trkpt lat="42.42491" lon="0.01327">
        <ele>1012.4</ele>
        <time>2016-07-31T08:18:20Z</time>
      </trkpt>
      <trkpt lat="42.42491" lon="0.01323">
        <ele>1012.4</ele>
        <time>2016-07-31T08:18:21Z</time>
      </trkpt>
      <trkpt lat="42.42491" lon="0.0132">
        <ele>1012.5</ele>
        <time>2016-07-31T08:18:22Z</time>
      </trkpt>
      <trkpt lat="42.42491" lon="0.01316">
        <ele>1012.5</ele>
        <time>2016-07-31T08:18:23Z</time>
      </trkpt>
      <trkpt lat="42.42491" lon="0.01312">
        <ele>1012.6</ele>
        <time>2016-07-31T08:18:24Z</time>
      </trkpt>
      <trkpt lat="42.42491" lon="0.01308">
        <ele>1012.6</ele>
        <time>2016-07-31T08:18:25Z</time>
      </trkpt>
      <trkpt lat="42.42491" lon="0.01304">
        <ele>1012.7</ele>
        <time>2016-07-31T08:18:26Z</time>
      </trkpt>
      <trkpt lat="42.4249" lon="0.013">
        <ele>1012.8</ele>
        <time>2016-07-31T08:18:27Z</time>
      </trkpt>
      <trkpt lat="42.42489" lon="0.01297">
        <ele>1012.8</ele>
        <time>2016-07-31T08:18:28Z</time>
      </trkpt>
      <trkpt lat="42.42488" lon="0.01293">
        <ele>1012.9</ele>
        <time>2016-07-31T08:18:29Z</time>
      </trkpt>
      <trkpt lat="42.42487" lon="0.0129">
        <ele>1013.1</ele>
        <time>2016-07-31T08:18:30Z</time>
      </trkpt>
      <trkpt lat="42.42485" lon="0.01286">
        <ele>1013.2</ele>
        <time>2016-07-31T08:18:31Z</time>
      </trkpt>
      <trkpt lat="42.42484" lon="0.01283">
        <ele>1013.4</ele>
        <time>2016-07-31T08:18:32Z</time>
      </trkpt>
      <trkpt lat="42.42482" lon="0.0128">
        <ele>1013.5</ele>
        <time>2016-07-31T08:18:33Z</time>
      </trkpt>
      <trkpt lat="42.4248" lon="0.01277">
        <ele>1013.7</ele>
        <time>2016-07-31T08:18:34Z</time>
      </trkpt>
      <trkpt lat="42.42478" lon="0.01275">
        <ele>1013.8</ele>
        <time>2016-07-31T08:18:35Z</time>
      </trkpt>
      <trkpt lat="42.42476" lon="0.01272">
        <ele>1013.9</ele>
        <time>2016-07-31T08:18:36Z</time>
      </trkpt>
      <trkpt lat="42.42473" lon="0.0127">
        <ele>1013.9</ele>
        <time>2016-07-31T08:18:37Z</time>
      </trkpt>
      <trkpt lat="42.4247" lon="0.01268">
        <ele>1014</ele>
        <time>2016-07-31T08:18:38Z</time>
      </trkpt>
      <trkpt lat="42.42467" lon="0.01266">
        <ele>1014</ele>
        <time>2016-07-31T08:18:39Z</time>
      </trkpt>
      <trkpt lat="42.42464" lon="0.01264">
        <ele>1014</ele>
        <time>2016-07-31T08:18:40Z</time>
      </trkpt>
      <trkpt lat="42.4246" lon="0.01263">
        <ele>1014</ele>
        <time>2016-07-31T08:18:41Z</time>
      </trkpt>
      <trkpt lat="42.42457" lon="0.01263">
        <ele>1014.3</ele>
        <time>2016-07-31T08:18:42Z</time>
      </trkpt>
      <trkpt lat="42.42454" lon="0.01263">
        <ele>1015.1</ele>
        <time>2016-07-31T08:18:43Z</time>
      </trkpt>
      <trkpt lat="42.42451" lon="0.01264">
        <ele>1016</ele>
        <time>2016-07-31T08:18:44Z</time>
      </trkpt>
      <trkpt lat="42.42448" lon="0.01265">
        <ele>1016.7</ele>
        <time>2016-07-31T08:18:45Z</time>
      </trkpt>
      <trkpt lat="42.42445" lon="0.01267">
        <ele>1017.5</ele>
        <time>2016-07-31T08:18:46Z</time>
      </trkpt>
      <trkpt lat="42.42442" lon="0.0127">
        <ele>1018.3</ele>
        <time>2016-07-31T08:18:47Z</time>
      </trkpt>
      <trkpt lat="42.42439" lon="0.01272">
        <ele>1019</ele>
        <time>2016-07-31T08:18:48Z</time>
      </trkpt>
      <trkpt lat="42.42437" lon="0.01275">
        <ele>1019.7</ele>
        <time>2016-07-31T08:18:49Z</time>
      </trkpt>
      <trkpt lat="42.42434" lon="0.01279">
        <ele>1020.4</ele>
        <time>2016-07-31T08:18:50Z</time>
      </trkpt>
      <trkpt lat="42.42432" lon="0.01282">
        <ele>1021</ele>
        <time>2016-07-31T08:18:51Z</time>
      </trkpt>
      <trkpt lat="42.42431" lon="0.01286">
        <ele>1021.5</ele>
        <time>2016-07-31T08:18:52Z</time>
      </trkpt>
      <trkpt lat="42.42429" lon="0.0129">
        <ele>1022</ele>
        <time>2016-07-31T08:18:53Z</time>
      </trkpt>
      <trkpt lat="42.42428" lon="0.01294">
        <ele>1022.2</ele>
        <time>2016-07-31T08:18:54Z</time>
      </trkpt>
      <trkpt lat="42.42428" lon="0.01297">
        <ele>1022.3</ele>
        <time>2016-07-31T08:18:55Z</time>
      </trkpt>
      <trkpt lat="42.42427" lon="0.01301">
        <ele>1022.4</ele>
        <time>2016-07-31T08:18:56Z</time>
      </trkpt>
      <trkpt lat="42.42426" lon="0.01304">
        <ele>1022.4</ele>
        <time>2016-07-31T08:18:57Z</time>
      </trkpt>
      <trkpt lat="42.42426" lon="0.01308">
        <ele>1022.4</ele>
        <time>2016-07-31T08:18:58Z</time>
      </trkpt>
      <trkpt lat="42.42426" lon="0.01312">
        <ele>1022.2</ele>
        <time>2016-07-31T08:18:59Z</time>
      </trkpt>
      <trkpt lat="42.42426" lon="0.01316">
        <ele>1022.1</ele>
        <time>2016-07-31T08:19:00Z</time>
      </trkpt>
      <trkpt lat="42.42426" lon="0.0132">
        <ele>1021.9</ele>
        <time>2016-07-31T08:19:01Z</time>
      </trkpt>
      <trkpt lat="42.42426" lon="0.01324">
        <ele>1021.8</ele>
        <time>2016-07-31T08:19:02Z</time>
      </trkpt>
      <trkpt lat="42.42426" lon="0.01331">
        <ele>1021.5</ele>
        <time>2016-07-31T08:19:04Z</time>
      </trkpt>
      <trkpt lat="42.42426" lon="0.01335">
        <ele>1021.4</ele>
        <time>2016-07-31T08:19:05Z</time>
      </trkpt>
      <trkpt lat="42.42426" lon="0.01342">
        <ele>1021.3</ele>
        <time>2016-07-31T08:19:07Z</time>
      </trkpt>
      <trkpt lat="42.42424" lon="0.01349">
        <ele>1021.3</ele>
        <time>2016-07-31T08:19:09Z</time>
      </trkpt>
      <trkpt lat="42.42423" lon="0.01352">
        <ele>1021.4</ele>
        <time>2016-07-31T08:19:10Z</time>
      </trkpt>
      <trkpt lat="42.42421" lon="0.01355">
        <ele>1021.6</ele>
        <time>2016-07-31T08:19:11Z</time>
      </trkpt>
      <trkpt lat="42.42419" lon="0.01358">
        <ele>1021.8</ele>
        <time>2016-07-31T08:19:12Z</time>
      </trkpt>
      <trkpt lat="42.42417" lon="0.01361">
        <ele>1022</ele>
        <time>2016-07-31T08:19:13Z</time>
      </trkpt>
      <trkpt lat="42.42415" lon="0.01364">
        <ele>1022.3</ele>
        <time>2016-07-31T08:19:14Z</time>
      </trkpt>
      <trkpt lat="42.42413" lon="0.01366">
        <ele>1022.5</ele>
        <time>2016-07-31T08:19:15Z</time>
      </trkpt>
      <trkpt lat="42.42411" lon="0.01368">
        <ele>1022.8</ele>
        <time>2016-07-31T08:19:16Z</time>
      </trkpt>
      <trkpt lat="42.42408" lon="0.0137">
        <ele>1023.1</ele>
        <time>2016-07-31T08:19:17Z</time>
      </trkpt>
      <trkpt lat="42.42406" lon="0.01371">
        <ele>1023.5</ele>
        <time>2016-07-31T08:19:18Z</time>
      </trkpt>
      <trkpt lat="42.42403" lon="0.01372">
        <ele>1023.9</ele>
        <time>2016-07-31T08:19:19Z</time>
      </trkpt>
      <trkpt lat="42.424" lon="0.01374">
        <ele>1024.2</ele>
        <time>2016-07-31T08:19:20Z</time>
      </trkpt>
      <trkpt lat="42.42397" lon="0.01375">
        <ele>1024.6</ele>
        <time>2016-07-31T08:19:21Z</time>
      </trkpt>
      <trkpt lat="42.42394" lon="0.01376">
        <ele>1024.9</ele>
        <time>2016-07-31T08:19:22Z</time>
      </trkpt>
      <trkpt lat="42.42391" lon="0.01377">
        <ele>1025.3</ele>
        <time>2016-07-31T08:19:23Z</time>
      </trkpt>
      <trkpt lat="42.42388" lon="0.01378">
        <ele>1025.6</ele>
        <time>2016-07-31T08:19:24Z</time>
      </trkpt>
      <trkpt lat="42.42385" lon="0.01379">
        <ele>1025.9</ele>
        <time>2016-07-31T08:19:25Z</time>
      </trkpt>
      <trkpt lat="42.42382" lon="0.0138">
        <ele>1026.2</ele>
        <time>2016-07-31T08:19:26Z</time>
      </trkpt>
      <trkpt lat="42.42379" lon="0.01381">
        <ele>1026.6</ele>
        <time>2016-07-31T08:19:27Z</time>
      </trkpt>
      <trkpt lat="42.42376" lon="0.01381">
        <ele>1027</ele>
        <time>2016-07-31T08:19:28Z</time>
      </trkpt>
      <trkpt lat="42.42374" lon="0.01381">
        <ele>1027.3</ele>
        <time>2016-07-31T08:19:29Z</time>
      </trkpt>
      <trkpt lat="42.42368" lon="0.01379">
        <ele>1028.1</ele>
        <time>2016-07-31T08:19:31Z</time>
      </trkpt>
      <trkpt lat="42.42364" lon="0.01377">
        <ele>1028.8</ele>
        <time>2016-07-31T08:19:33Z</time>
      </trkpt>
      <trkpt lat="42.42359" lon="0.01374">
        <ele>1029.6</ele>
        <time>2016-07-31T08:19:35Z</time>
      </trkpt>
      <trkpt lat="42.42355" lon="0.01371">
        <ele>1030.3</ele>
        <time>2016-07-31T08:19:37Z</time>
      </trkpt>
      <trkpt lat="42.4235" lon="0.01368">
        <ele>1031.1</ele>
        <time>2016-07-31T08:19:39Z</time>
      </trkpt>
      <trkpt lat="42.42345" lon="0.01366">
        <ele>1031.7</ele>
        <time>2016-07-31T08:19:41Z</time>
      </trkpt>
      <trkpt lat="42.42341" lon="0.01365">
        <ele>1032.3</ele>
        <time>2016-07-31T08:19:43Z</time>
      </trkpt>
      <trkpt lat="42.42336" lon="0.01362">
        <ele>1032.9</ele>
        <time>2016-07-31T08:19:45Z</time>
      </trkpt>
      <trkpt lat="42.42333" lon="0.01359">
        <ele>1033.5</ele>
        <time>2016-07-31T08:19:47Z</time>
      </trkpt>
      <trkpt lat="42.42328" lon="0.01356">
        <ele>1034.1</ele>
        <time>2016-07-31T08:19:49Z</time>
      </trkpt>
      <trkpt lat="42.42324" lon="0.01353">
        <ele>1034.8</ele>
        <time>2016-07-31T08:19:51Z</time>
      </trkpt>
      <trkpt lat="42.4232" lon="0.01351">
        <ele>1035.3</ele>
        <time>2016-07-31T08:19:53Z</time>
      </trkpt>
      <trkpt lat="42.42315" lon="0.0135">
        <ele>1035.8</ele>
        <time>2016-07-31T08:19:55Z</time>
      </trkpt>
      <trkpt lat="42.4231" lon="0.01349">
        <ele>1036.3</ele>
        <time>2016-07-31T08:19:57Z</time>
      </trkpt>
      <trkpt lat="42.42306" lon="0.01349">
        <ele>1036.7</ele>
        <time>2016-07-31T08:19:59Z</time>
      </trkpt>
      <trkpt lat="42.42301" lon="0.01351">
        <ele>1036.9</ele>
        <time>2016-07-31T08:20:01Z</time>
      </trkpt>
      <trkpt lat="42.42296" lon="0.01353">
        <ele>1037.2</ele>
        <time>2016-07-31T08:20:03Z</time>
      </trkpt>
      <trkpt lat="42.42292" lon="0.01355">
        <ele>1037.5</ele>
        <time>2016-07-31T08:20:05Z</time>
      </trkpt>
      <trkpt lat="42.42287" lon="0.01357">
        <ele>1037.3</ele>
        <time>2016-07-31T08:20:07Z</time>
      </trkpt>
      <trkpt lat="42.42283" lon="0.01359">
        <ele>1037.2</ele>
        <time>2016-07-31T08:20:09Z</time>
      </trkpt>
      <trkpt lat="42.42278" lon="0.01362">
        <ele>1037</ele>
        <time>2016-07-31T08:20:11Z</time>
      </trkpt>
      <trkpt lat="42.42273" lon="0.01364">
        <ele>1036.9</ele>
        <time>2016-07-31T08:20:13Z</time>
      </trkpt>
      <trkpt lat="42.42268" lon="0.01366">
        <ele>1036.7</ele>
        <time>2016-07-31T08:20:15Z</time>
      </trkpt>
      <trkpt lat="42.42263" lon="0.01368">
        <ele>1036.6</ele>
        <time>2016-07-31T08:20:17Z</time>
      </trkpt>
      <trkpt lat="42.4226" lon="0.01368">
        <ele>1036.5</ele>
        <time>2016-07-31T08:20:18Z</time>
      </trkpt>
      <trkpt lat="42.42255" lon="0.01369">
        <ele>1036.4</ele>
        <time>2016-07-31T08:20:20Z</time>
      </trkpt>
      <trkpt lat="42.42251" lon="0.01371">
        <ele>1036.4</ele>
        <time>2016-07-31T08:20:22Z</time>
      </trkpt>
      <trkpt lat="42.42245" lon="0.01371">
        <ele>1036.3</ele>
        <time>2016-07-31T08:20:24Z</time>
      </trkpt>
      <trkpt lat="42.4224" lon="0.01372">
        <ele>1036.2</ele>
        <time>2016-07-31T08:20:26Z</time>
      </trkpt>
      <trkpt lat="42.42237" lon="0.01372">
        <ele>1036.2</ele>
        <time>2016-07-31T08:20:27Z</time>
      </trkpt>
      <trkpt lat="42.42232" lon="0.01373">
        <ele>1036.1</ele>
        <time>2016-07-31T08:20:29Z</time>
      </trkpt>
      <trkpt lat="42.42227" lon="0.01374">
        <ele>1036.1</ele>
        <time>2016-07-31T08:20:31Z</time>
      </trkpt>
      <trkpt lat="42.42222" lon="0.01374">
        <ele>1036.1</ele>
        <time>2016-07-31T08:20:33Z</time>
      </trkpt>
      <trkpt lat="42.42216" lon="0.01373">
        <ele>1036.1</ele>
        <time>2016-07-31T08:20:35Z</time>
      </trkpt>
      <trkpt lat="42.42214" lon="0.01373">
        <ele>1036.1</ele>
        <time>2016-07-31T08:20:36Z</time>
      </trkpt>
      <trkpt lat="42.42209" lon="0.01373">
        <ele>1036.2</ele>
        <time>2016-07-31T08:20:38Z</time>
      </trkpt>
      <trkpt lat="42.42204" lon="0.01372">
        <ele>1036.6</ele>
        <time>2016-07-31T08:20:40Z</time>
      </trkpt>
      <trkpt lat="42.422" lon="0.0137">
        <ele>1036.9</ele>
        <time>2016-07-31T08:20:42Z</time>
      </trkpt>
      <trkpt lat="42.42196" lon="0.01368">
        <ele>1037.3</ele>
        <time>2016-07-31T08:20:44Z</time>
      </trkpt>
      <trkpt lat="42.42191" lon="0.01367">
        <ele>1037.7</ele>
        <time>2016-07-31T08:20:46Z</time>
      </trkpt>
      <trkpt lat="42.42187" lon="0.01366">
        <ele>1038</ele>
        <time>2016-07-31T08:20:48Z</time>
      </trkpt>
      <trkpt lat="42.42182" lon="0.01367">
        <ele>1038.3</ele>
        <time>2016-07-31T08:20:50Z</time>
      </trkpt>
      <trkpt lat="42.42177" lon="0.01367">
        <ele>1038.6</ele>
        <time>2016-07-31T08:20:52Z</time>
      </trkpt>
      <trkpt lat="42.42173" lon="0.01367">
        <ele>1038.8</ele>
        <time>2016-07-31T08:20:54Z</time>
      </trkpt>
      <trkpt lat="42.42168" lon="0.01368">
        <ele>1039</ele>
        <time>2016-07-31T08:20:56Z</time>
      </trkpt>
      <trkpt lat="42.42164" lon="0.01368">
        <ele>1039.3</ele>
        <time>2016-07-31T08:20:58Z</time>
      </trkpt>
      <trkpt lat="42.42159" lon="0.01369">
        <ele>1039.4</ele>
        <time>2016-07-31T08:21:00Z</time>
      </trkpt>
      <trkpt lat="42.42155" lon="0.01371">
        <ele>1039.5</ele>
        <time>2016-07-31T08:21:02Z</time>
      </trkpt>
      <trkpt lat="42.42151" lon="0.01373">
        <ele>1039.7</ele>
        <time>2016-07-31T08:21:04Z</time>
      </trkpt>
      <trkpt lat="42.42146" lon="0.01375">
        <ele>1039.8</ele>
        <time>2016-07-31T08:21:06Z</time>
      </trkpt>
      <trkpt lat="42.42142" lon="0.01377">
        <ele>1040</ele>
        <time>2016-07-31T08:21:08Z</time>
      </trkpt>
      <trkpt lat="42.42137" lon="0.01379">
        <ele>1040.3</ele>
        <time>2016-07-31T08:21:10Z</time>
      </trkpt>
      <trkpt lat="42.42132" lon="0.01382">
        <ele>1040.6</ele>
        <time>2016-07-31T08:21:12Z</time>
      </trkpt>
      <trkpt lat="42.42127" lon="0.01384">
        <ele>1040.9</ele>
        <time>2016-07-31T08:21:14Z</time>
      </trkpt>
      <trkpt lat="42.42123" lon="0.01386">
        <ele>1041.1</ele>
        <time>2016-07-31T08:21:16Z</time>
      </trkpt>
      <trkpt lat="42.42119" lon="0.01388">
        <ele>1041.3</ele>
        <time>2016-07-31T08:21:18Z</time>
      </trkpt>
      <trkpt lat="42.42114" lon="0.0139">
        <ele>1041.6</ele>
        <time>2016-07-31T08:21:20Z</time>
      </trkpt>
      <trkpt lat="42.42109" lon="0.01392">
        <ele>1041.8</ele>
        <time>2016-07-31T08:21:22Z</time>
      </trkpt>
      <trkpt lat="42.42106" lon="0.01393">
        <ele>1042</ele>
        <time>2016-07-31T08:21:23Z</time>
      </trkpt>
      <trkpt lat="42.42104" lon="0.01395">
        <ele>1042.1</ele>
        <time>2016-07-31T08:21:24Z</time>
      </trkpt>
      <trkpt lat="42.42099" lon="0.01397">
        <ele>1042.3</ele>
        <time>2016-07-31T08:21:26Z</time>
      </trkpt>
      <trkpt lat="42.42094" lon="0.01399">
        <ele>1042.6</ele>
        <time>2016-07-31T08:21:28Z</time>
      </trkpt>
      <trkpt lat="42.4209" lon="0.01401">
        <ele>1042.8</ele>
        <time>2016-07-31T08:21:30Z</time>
      </trkpt>
      <trkpt lat="42.42085" lon="0.01401">
        <ele>1043.1</ele>
        <time>2016-07-31T08:21:32Z</time>
      </trkpt>
      <trkpt lat="42.4208" lon="0.014">
        <ele>1043.3</ele>
        <time>2016-07-31T08:21:34Z</time>
      </trkpt>
      <trkpt lat="42.42076" lon="0.014">
        <ele>1043.5</ele>
        <time>2016-07-31T08:21:36Z</time>
      </trkpt>
      <trkpt lat="42.42072" lon="0.01398">
        <ele>1043.7</ele>
        <time>2016-07-31T08:21:38Z</time>
      </trkpt>
      <trkpt lat="42.42067" lon="0.01395">
        <ele>1043.9</ele>
        <time>2016-07-31T08:21:40Z</time>
      </trkpt>
      <trkpt lat="42.42063" lon="0.01392">
        <ele>1044.1</ele>
        <time>2016-07-31T08:21:42Z</time>
      </trkpt>
      <trkpt lat="42.42059" lon="0.01389">
        <ele>1044.3</ele>
        <time>2016-07-31T08:21:44Z</time>
      </trkpt>
      <trkpt lat="42.42056" lon="0.01386">
        <ele>1044.4</ele>
        <time>2016-07-31T08:21:45Z</time>
      </trkpt>
      <trkpt lat="42.42054" lon="0.01385">
        <ele>1044.5</ele>
        <time>2016-07-31T08:21:46Z</time>
      </trkpt>
      <trkpt lat="42.42049" lon="0.01381">
        <ele>1044.7</ele>
        <time>2016-07-31T08:21:48Z</time>
      </trkpt>
      <trkpt lat="42.42045" lon="0.01377">
        <ele>1044.9</ele>
        <time>2016-07-31T08:21:50Z</time>
      </trkpt>
      <trkpt lat="42.42041" lon="0.01373">
        <ele>1044.8</ele>
        <time>2016-07-31T08:21:52Z</time>
      </trkpt>
      <trkpt lat="42.42037" lon="0.0137">
        <ele>1044.3</ele>
        <time>2016-07-31T08:21:54Z</time>
      </trkpt>
      <trkpt lat="42.42033" lon="0.01365">
        <ele>1043.7</ele>
        <time>2016-07-31T08:21:56Z</time>
      </trkpt>
      <trkpt lat="42.42029" lon="0.01362">
        <ele>1043</ele>
        <time>2016-07-31T08:21:58Z</time>
      </trkpt>
      <trkpt lat="42.42025" lon="0.01358">
        <ele>1042.3</ele>
        <time>2016-07-31T08:22:00Z</time>
      </trkpt>
      <trkpt lat="42.42021" lon="0.01355">
        <ele>1041.5</ele>
        <time>2016-07-31T08:22:02Z</time>
      </trkpt>
      <trkpt lat="42.42017" lon="0.01355">
        <ele>1040.6</ele>
        <time>2016-07-31T08:22:04Z</time>
      </trkpt>
      <trkpt lat="42.42014" lon="0.01358">
        <ele>1039.8</ele>
        <time>2016-07-31T08:22:06Z</time>
      </trkpt>
      <trkpt lat="42.42011" lon="0.01362">
        <ele>1039.2</ele>
        <time>2016-07-31T08:22:08Z</time>
      </trkpt>
      <trkpt lat="42.42009" lon="0.01367">
        <ele>1038.6</ele>
        <time>2016-07-31T08:22:10Z</time>
      </trkpt>
      <trkpt lat="42.42007" lon="0.01373">
        <ele>1037.9</ele>
        <time>2016-07-31T08:22:12Z</time>
      </trkpt>
      <trkpt lat="42.42005" lon="0.01376">
        <ele>1037.7</ele>
        <time>2016-07-31T08:22:13Z</time>
      </trkpt>
      <trkpt lat="42.42004" lon="0.0138">
        <ele>1037.6</ele>
        <time>2016-07-31T08:22:14Z</time>
      </trkpt>
      <trkpt lat="42.42001" lon="0.01386">
        <ele>1037.5</ele>
        <time>2016-07-31T08:22:16Z</time>
      </trkpt>
      <trkpt lat="42.42" lon="0.01389">
        <ele>1037.4</ele>
        <time>2016-07-31T08:22:17Z</time>
      </trkpt>
      <trkpt lat="42.41998" lon="0.01392">
        <ele>1037.4</ele>
        <time>2016-07-31T08:22:18Z</time>
      </trkpt>
      <trkpt lat="42.41997" lon="0.01396">
        <ele>1037.4</ele>
        <time>2016-07-31T08:22:19Z</time>
      </trkpt>
      <trkpt lat="42.41996" lon="0.014">
        <ele>1037.5</ele>
        <time>2016-07-31T08:22:20Z</time>
      </trkpt>
      <trkpt lat="42.41995" lon="0.01403">
        <ele>1037.7</ele>
        <time>2016-07-31T08:22:21Z</time>
      </trkpt>
      <trkpt lat="42.41994" lon="0.01407">
        <ele>1037.8</ele>
        <time>2016-07-31T08:22:22Z</time>
      </trkpt>
      <trkpt lat="42.41993" lon="0.01411">
        <ele>1038</ele>
        <time>2016-07-31T08:22:23Z</time>
      </trkpt>
      <trkpt lat="42.41992" lon="0.01415">
        <ele>1038.2</ele>
        <time>2016-07-31T08:22:24Z</time>
      </trkpt>
      <trkpt lat="42.41992" lon="0.01419">
        <ele>1038.4</ele>
        <time>2016-07-31T08:22:25Z</time>
      </trkpt>
      <trkpt lat="42.41991" lon="0.01423">
        <ele>1038.7</ele>
        <time>2016-07-31T08:22:26Z</time>
      </trkpt>
      <trkpt lat="42.4199" lon="0.01427">
        <ele>1039</ele>
        <time>2016-07-31T08:22:27Z</time>
      </trkpt>
      <trkpt lat="42.4199" lon="0.01432">
        <ele>1039.3</ele>
        <time>2016-07-31T08:22:28Z</time>
      </trkpt>
      <trkpt lat="42.41989" lon="0.01436">
        <ele>1039.6</ele>
        <time>2016-07-31T08:22:29Z</time>
      </trkpt>
      <trkpt lat="42.41988" lon="0.0144">
        <ele>1039.8</ele>
        <time>2016-07-31T08:22:30Z</time>
      </trkpt>
      <trkpt lat="42.41987" lon="0.01447">
        <ele>1040.3</ele>
        <time>2016-07-31T08:22:32Z</time>
      </trkpt>
      <trkpt lat="42.41986" lon="0.0145">
        <ele>1040.6</ele>
        <time>2016-07-31T08:22:33Z</time>
      </trkpt>
      <trkpt lat="42.41985" lon="0.01455">
        <ele>1040.9</ele>
        <time>2016-07-31T08:22:34Z</time>
      </trkpt>
      <trkpt lat="42.41985" lon="0.01459">
        <ele>1041.2</ele>
        <time>2016-07-31T08:22:35Z</time>
      </trkpt>
      <trkpt lat="42.41984" lon="0.01463">
        <ele>1041.5</ele>
        <time>2016-07-31T08:22:36Z</time>
      </trkpt>
      <trkpt lat="42.41984" lon="0.01467">
        <ele>1041.8</ele>
        <time>2016-07-31T08:22:37Z</time>
      </trkpt>
      <trkpt lat="42.41983" lon="0.01471">
        <ele>1042.1</ele>
        <time>2016-07-31T08:22:38Z</time>
      </trkpt>
      <trkpt lat="42.41983" lon="0.01474">
        <ele>1042.3</ele>
        <time>2016-07-31T08:22:39Z</time>
      </trkpt>
      <trkpt lat="42.41982" lon="0.01478">
        <ele>1042.6</ele>
        <time>2016-07-31T08:22:40Z</time>
      </trkpt>
      <trkpt lat="42.41982" lon="0.01482">
        <ele>1042.8</ele>
        <time>2016-07-31T08:22:41Z</time>
      </trkpt>
      <trkpt lat="42.41981" lon="0.01488">
        <ele>1043.4</ele>
        <time>2016-07-31T08:22:43Z</time>
      </trkpt>
      <trkpt lat="42.41981" lon="0.01492">
        <ele>1043.7</ele>
        <time>2016-07-31T08:22:44Z</time>
      </trkpt>
      <trkpt lat="42.41981" lon="0.01496">
        <ele>1044</ele>
        <time>2016-07-31T08:22:45Z</time>
      </trkpt>
      <trkpt lat="42.4198" lon="0.01501">
        <ele>1044.3</ele>
        <time>2016-07-31T08:22:46Z</time>
      </trkpt>
      <trkpt lat="42.41979" lon="0.01505">
        <ele>1044.7</ele>
        <time>2016-07-31T08:22:47Z</time>
      </trkpt>
      <trkpt lat="42.41979" lon="0.01509">
        <ele>1045</ele>
        <time>2016-07-31T08:22:48Z</time>
      </trkpt>
      <trkpt lat="42.41978" lon="0.01514">
        <ele>1045.4</ele>
        <time>2016-07-31T08:22:49Z</time>
      </trkpt>
      <trkpt lat="42.41978" lon="0.01518">
        <ele>1045.8</ele>
        <time>2016-07-31T08:22:50Z</time>
      </trkpt>
      <trkpt lat="42.41977" lon="0.01523">
        <ele>1046.2</ele>
        <time>2016-07-31T08:22:51Z</time>
      </trkpt>
      <trkpt lat="42.41976" lon="0.01529">
        <ele>1046.7</ele>
        <time>2016-07-31T08:22:52Z</time>
      </trkpt>
      <trkpt lat="42.41976" lon="0.01534">
        <ele>1047.1</ele>
        <time>2016-07-31T08:22:53Z</time>
      </trkpt>
      <trkpt lat="42.41975" lon="0.01539">
        <ele>1047.6</ele>
        <time>2016-07-31T08:22:54Z</time>
      </trkpt>
      <trkpt lat="42.41975" lon="0.01545">
        <ele>1047.8</ele>
        <time>2016-07-31T08:22:55Z</time>
      </trkpt>
      <trkpt lat="42.41974" lon="0.0155">
        <ele>1047.7</ele>
        <time>2016-07-31T08:22:56Z</time>
      </trkpt>
      <trkpt lat="42.41974" lon="0.01555">
        <ele>1047.6</ele>
        <time>2016-07-31T08:22:57Z</time>
      </trkpt>
      <trkpt lat="42.41974" lon="0.01561">
        <ele>1047.6</ele>
        <time>2016-07-31T08:22:58Z</time>
      </trkpt>
      <trkpt lat="42.41974" lon="0.01567">
        <ele>1047.5</ele>
        <time>2016-07-31T08:22:59Z</time>
      </trkpt>
      <trkpt lat="42.41974" lon="0.01573">
        <ele>1047.4</ele>
        <time>2016-07-31T08:23:00Z</time>
      </trkpt>
      <trkpt lat="42.41974" lon="0.01579">
        <ele>1047.4</ele>
        <time>2016-07-31T08:23:01Z</time>
      </trkpt>
      <trkpt lat="42.41974" lon="0.01586">
        <ele>1047.3</ele>
        <time>2016-07-31T08:23:02Z</time>
      </trkpt>
      <trkpt lat="42.41974" lon="0.0159">
        <ele>1047.2</ele>
        <time>2016-07-31T08:23:03Z</time>
      </trkpt>
      <trkpt lat="42.41974" lon="0.01595">
        <ele>1047.2</ele>
        <time>2016-07-31T08:23:04Z</time>
      </trkpt>
      <trkpt lat="42.41974" lon="0.01601">
        <ele>1047.1</ele>
        <time>2016-07-31T08:23:05Z</time>
      </trkpt>
      <trkpt lat="42.41974" lon="0.01607">
        <ele>1047</ele>
        <time>2016-07-31T08:23:06Z</time>
      </trkpt>
      <trkpt lat="42.41974" lon="0.01612">
        <ele>1047</ele>
        <time>2016-07-31T08:23:07Z</time>
      </trkpt>
      <trkpt lat="42.41974" lon="0.01617">
        <ele>1046.9</ele>
        <time>2016-07-31T08:23:08Z</time>
      </trkpt>
      <trkpt lat="42.41974" lon="0.01623">
        <ele>1046.8</ele>
        <time>2016-07-31T08:23:09Z</time>
      </trkpt>
      <trkpt lat="42.41973" lon="0.01629">
        <ele>1046.9</ele>
        <time>2016-07-31T08:23:10Z</time>
      </trkpt>
      <trkpt lat="42.41973" lon="0.01635">
        <ele>1046.9</ele>
        <time>2016-07-31T08:23:11Z</time>
      </trkpt>
      <trkpt lat="42.41973" lon="0.0164">
        <ele>1046.9</ele>
        <time>2016-07-31T08:23:12Z</time>
      </trkpt>
      <trkpt lat="42.41973" lon="0.01646">
        <ele>1047</ele>
        <time>2016-07-31T08:23:13Z</time>
      </trkpt>
      <trkpt lat="42.41973" lon="0.01652">
        <ele>1047</ele>
        <time>2016-07-31T08:23:14Z</time>
      </trkpt>
      <trkpt lat="42.41974" lon="0.01658">
        <ele>1047</ele>
        <time>2016-07-31T08:23:15Z</time>
      </trkpt>
      <trkpt lat="42.41974" lon="0.01663">
        <ele>1047.1</ele>
        <time>2016-07-31T08:23:16Z</time>
      </trkpt>
      <trkpt lat="42.41975" lon="0.01669">
        <ele>1047.1</ele>
        <time>2016-07-31T08:23:17Z</time>
      </trkpt>
      <trkpt lat="42.41976" lon="0.01674">
        <ele>1047.2</ele>
        <time>2016-07-31T08:23:18Z</time>
      </trkpt>
      <trkpt lat="42.41977" lon="0.01679">
        <ele>1047.2</ele>
        <time>2016-07-31T08:23:19Z</time>
      </trkpt>
      <trkpt lat="42.41978" lon="0.01684">
        <ele>1047.3</ele>
        <time>2016-07-31T08:23:20Z</time>
      </trkpt>
      <trkpt lat="42.4198" lon="0.01689">
        <ele>1047.3</ele>
        <time>2016-07-31T08:23:21Z</time>
      </trkpt>
      <trkpt lat="42.41982" lon="0.01694">
        <ele>1047.4</ele>
        <time>2016-07-31T08:23:22Z</time>
      </trkpt>
      <trkpt lat="42.41984" lon="0.01699">
        <ele>1047.5</ele>
        <time>2016-07-31T08:23:23Z</time>
      </trkpt>
      <trkpt lat="42.41986" lon="0.01703">
        <ele>1047.6</ele>
        <time>2016-07-31T08:23:24Z</time>
      </trkpt>
      <trkpt lat="42.41989" lon="0.01708">
        <ele>1047.7</ele>
        <time>2016-07-31T08:23:25Z</time>
      </trkpt>
      <trkpt lat="42.41991" lon="0.01712">
        <ele>1047.8</ele>
        <time>2016-07-31T08:23:26Z</time>
      </trkpt>
      <trkpt lat="42.41992" lon="0.01716">
        <ele>1047.9</ele>
        <time>2016-07-31T08:23:27Z</time>
      </trkpt>
      <trkpt lat="42.41995" lon="0.0172">
        <ele>1047.9</ele>
        <time>2016-07-31T08:23:28Z</time>
      </trkpt>
      <trkpt lat="42.41997" lon="0.01724">
        <ele>1048</ele>
        <time>2016-07-31T08:23:29Z</time>
      </trkpt>
      <trkpt lat="42.41999" lon="0.01727">
        <ele>1048.1</ele>
        <time>2016-07-31T08:23:30Z</time>
      </trkpt>
      <trkpt lat="42.42002" lon="0.01731">
        <ele>1048.2</ele>
        <time>2016-07-31T08:23:31Z</time>
      </trkpt>
      <trkpt lat="42.42004" lon="0.01734">
        <ele>1048.3</ele>
        <time>2016-07-31T08:23:32Z</time>
      </trkpt>
      <trkpt lat="42.42006" lon="0.01737">
        <ele>1048.4</ele>
        <time>2016-07-31T08:23:33Z</time>
      </trkpt>
      <trkpt lat="42.42009" lon="0.0174">
        <ele>1048.4</ele>
        <time>2016-07-31T08:23:34Z</time>
      </trkpt>
      <trkpt lat="42.42011" lon="0.01742">
        <ele>1048.5</ele>
        <time>2016-07-31T08:23:35Z</time>
      </trkpt>
      <trkpt lat="42.42013" lon="0.01745">
        <ele>1048.6</ele>
        <time>2016-07-31T08:23:36Z</time>
      </trkpt>
      <trkpt lat="42.42016" lon="0.0175">
        <ele>1048.7</ele>
        <time>2016-07-31T08:23:38Z</time>
      </trkpt>
      <trkpt lat="42.42017" lon="0.01754">
        <ele>1048.8</ele>
        <time>2016-07-31T08:23:39Z</time>
      </trkpt>
      <trkpt lat="42.42019" lon="0.01757">
        <ele>1048.9</ele>
        <time>2016-07-31T08:23:40Z</time>
      </trkpt>
      <trkpt lat="42.4202" lon="0.0176">
        <ele>1048.9</ele>
        <time>2016-07-31T08:23:41Z</time>
      </trkpt>
      <trkpt lat="42.42021" lon="0.01764">
        <ele>1049</ele>
        <time>2016-07-31T08:23:42Z</time>
      </trkpt>
      <trkpt lat="42.42022" lon="0.01768">
        <ele>1049.1</ele>
        <time>2016-07-31T08:23:43Z</time>
      </trkpt>
      <trkpt lat="42.42023" lon="0.01772">
        <ele>1049.1</ele>
        <time>2016-07-31T08:23:44Z</time>
      </trkpt>
      <trkpt lat="42.42023" lon="0.01775">
        <ele>1049.2</ele>
        <time>2016-07-31T08:23:45Z</time>
      </trkpt>
      <trkpt lat="42.42024" lon="0.01779">
        <ele>1049.2</ele>
        <time>2016-07-31T08:23:46Z</time>
      </trkpt>
      <trkpt lat="42.42025" lon="0.01783">
        <ele>1049.3</ele>
        <time>2016-07-31T08:23:47Z</time>
      </trkpt>
      <trkpt lat="42.42026" lon="0.01787">
        <ele>1049.4</ele>
        <time>2016-07-31T08:23:48Z</time>
      </trkpt>
      <trkpt lat="42.42027" lon="0.0179">
        <ele>1049.4</ele>
        <time>2016-07-31T08:23:49Z</time>
      </trkpt>
      <trkpt lat="42.42028" lon="0.01794">
        <ele>1049.6</ele>
        <time>2016-07-31T08:23:50Z</time>
      </trkpt>
      <trkpt lat="42.42028" lon="0.01798">
        <ele>1049.8</ele>
        <time>2016-07-31T08:23:51Z</time>
      </trkpt>
      <trkpt lat="42.42029" lon="0.01801">
        <ele>1050.1</ele>
        <time>2016-07-31T08:23:52Z</time>
      </trkpt>
      <trkpt lat="42.4203" lon="0.01805">
        <ele>1050.3</ele>
        <time>2016-07-31T08:23:53Z</time>
      </trkpt>
      <trkpt lat="42.42031" lon="0.01812">
        <ele>1050.7</ele>
        <time>2016-07-31T08:23:55Z</time>
      </trkpt>
      <trkpt lat="42.42032" lon="0.01818">
        <ele>1051.1</ele>
        <time>2016-07-31T08:23:57Z</time>
      </trkpt>
      <trkpt lat="42.42033" lon="0.01824">
        <ele>1051.4</ele>
        <time>2016-07-31T08:23:59Z</time>
      </trkpt>
      <trkpt lat="42.42034" lon="0.0183">
        <ele>1051.8</ele>
        <time>2016-07-31T08:24:01Z</time>
      </trkpt>
      <trkpt lat="42.42034" lon="0.01836">
        <ele>1052.1</ele>
        <time>2016-07-31T08:24:03Z</time>
      </trkpt>
      <trkpt lat="42.42034" lon="0.01841">
        <ele>1052.5</ele>
        <time>2016-07-31T08:24:05Z</time>
      </trkpt>
      <trkpt lat="42.42033" lon="0.01847">
        <ele>1052.7</ele>
        <time>2016-07-31T08:24:07Z</time>
      </trkpt>
      <trkpt lat="42.4203" lon="0.01853">
        <ele>1052.9</ele>
        <time>2016-07-31T08:24:09Z</time>
      </trkpt>
      <trkpt lat="42.42028" lon="0.01859">
        <ele>1053</ele>
        <time>2016-07-31T08:24:11Z</time>
      </trkpt>
      <trkpt lat="42.42025" lon="0.01864">
        <ele>1053.1</ele>
        <time>2016-07-31T08:24:13Z</time>
      </trkpt>
      <trkpt lat="42.42022" lon="0.01869">
        <ele>1053.1</ele>
        <time>2016-07-31T08:24:15Z</time>
      </trkpt>
      <trkpt lat="42.42019" lon="0.01874">
        <ele>1053.1</ele>
        <time>2016-07-31T08:24:17Z</time>
      </trkpt>
      <trkpt lat="42.42016" lon="0.01879">
        <ele>1053.2</ele>
        <time>2016-07-31T08:24:19Z</time>
      </trkpt>
      <trkpt lat="42.42013" lon="0.01882">
        <ele>1053.3</ele>
        <time>2016-07-31T08:24:21Z</time>
      </trkpt>
      <trkpt lat="42.42009" lon="0.01887">
        <ele>1053.4</ele>
        <time>2016-07-31T08:24:23Z</time>
      </trkpt>
      <trkpt lat="42.42006" lon="0.01891">
        <ele>1053.5</ele>
        <time>2016-07-31T08:24:25Z</time>
      </trkpt>
      <trkpt lat="42.42003" lon="0.01894">
        <ele>1053.6</ele>
        <time>2016-07-31T08:24:27Z</time>
      </trkpt>
      <trkpt lat="42.42" lon="0.01897">
        <ele>1053.6</ele>
        <time>2016-07-31T08:24:29Z</time>
      </trkpt>
      <trkpt lat="42.41996" lon="0.01899">
        <ele>1053.5</ele>
        <time>2016-07-31T08:24:31Z</time>
      </trkpt>
      <trkpt lat="42.41993" lon="0.01902">
        <ele>1053.5</ele>
        <time>2016-07-31T08:24:33Z</time>
      </trkpt>
      <trkpt lat="42.4199" lon="0.01904">
        <ele>1053.4</ele>
        <time>2016-07-31T08:24:35Z</time>
      </trkpt>
      <trkpt lat="42.41988" lon="0.01907">
        <ele>1053.5</ele>
        <time>2016-07-31T08:24:37Z</time>
      </trkpt>
      <trkpt lat="42.41985" lon="0.0191">
        <ele>1053.6</ele>
        <time>2016-07-31T08:24:39Z</time>
      </trkpt>
      <trkpt lat="42.41982" lon="0.01913">
        <ele>1053.7</ele>
        <time>2016-07-31T08:24:41Z</time>
      </trkpt>
      <trkpt lat="42.41979" lon="0.01917">
        <ele>1053.8</ele>
        <time>2016-07-31T08:24:43Z</time>
      </trkpt>
      <trkpt lat="42.41976" lon="0.01921">
        <ele>1053.9</ele>
        <time>2016-07-31T08:24:45Z</time>
      </trkpt>
      <trkpt lat="42.41973" lon="0.01924">
        <ele>1053.9</ele>
        <time>2016-07-31T08:24:47Z</time>
      </trkpt>
      <trkpt lat="42.4197" lon="0.01927">
        <ele>1054</ele>
        <time>2016-07-31T08:24:49Z</time>
      </trkpt>
      <trkpt lat="42.41967" lon="0.01931">
        <ele>1054.2</ele>
        <time>2016-07-31T08:24:51Z</time>
      </trkpt>
      <trkpt lat="42.41965" lon="0.01936">
        <ele>1054.4</ele>
        <time>2016-07-31T08:24:53Z</time>
      </trkpt>
      <trkpt lat="42.41962" lon="0.0194">
        <ele>1054.6</ele>
        <time>2016-07-31T08:24:55Z</time>
      </trkpt>
      <trkpt lat="42.4196" lon="0.01945">
        <ele>1054.9</ele>
        <time>2016-07-31T08:24:57Z</time>
      </trkpt>
      <trkpt lat="42.41959" lon="0.01951">
        <ele>1055.3</ele>
        <time>2016-07-31T08:24:59Z</time>
      </trkpt>
      <trkpt lat="42.41959" lon="0.01957">
        <ele>1055.9</ele>
        <time>2016-07-31T08:25:01Z</time>
      </trkpt>
      <trkpt lat="42.41961" lon="0.01962">
        <ele>1056.5</ele>
        <time>2016-07-31T08:25:03Z</time>
      </trkpt>
      <trkpt lat="42.41964" lon="0.01966">
        <ele>1057.1</ele>
        <time>2016-07-31T08:25:05Z</time>
      </trkpt>
      <trkpt lat="42.41967" lon="0.01968">
        <ele>1057.6</ele>
        <time>2016-07-31T08:25:07Z</time>
      </trkpt>
      <trkpt lat="42.41971" lon="0.0197">
        <ele>1058.1</ele>
        <time>2016-07-31T08:25:09Z</time>
      </trkpt>
      <trkpt lat="42.41975" lon="0.01971">
        <ele>1058.6</ele>
        <time>2016-07-31T08:25:11Z</time>
      </trkpt>
      <trkpt lat="42.41979" lon="0.01973">
        <ele>1059</ele>
        <time>2016-07-31T08:25:13Z</time>
      </trkpt>
      <trkpt lat="42.41982" lon="0.01975">
        <ele>1059.5</ele>
        <time>2016-07-31T08:25:15Z</time>
      </trkpt>
      <trkpt lat="42.41985" lon="0.01979">
        <ele>1060.1</ele>
        <time>2016-07-31T08:25:17Z</time>
      </trkpt>
      <trkpt lat="42.41988" lon="0.01982">
        <ele>1060.7</ele>
        <time>2016-07-31T08:25:19Z</time>
      </trkpt>
      <trkpt lat="42.41991" lon="0.01985">
        <ele>1061.2</ele>
        <time>2016-07-31T08:25:21Z</time>
      </trkpt>
      <trkpt lat="42.41993" lon="0.01989">
        <ele>1061.8</ele>
        <time>2016-07-31T08:25:23Z</time>
      </trkpt>
      <trkpt lat="42.41995" lon="0.01993">
        <ele>1062.3</ele>
        <time>2016-07-31T08:25:25Z</time>
      </trkpt>
      <trkpt lat="42.41999" lon="0.01995">
        <ele>1062.9</ele>
        <time>2016-07-31T08:25:27Z</time>
      </trkpt>
      <trkpt lat="42.42004" lon="0.01996">
        <ele>1063.4</ele>
        <time>2016-07-31T08:25:29Z</time>
      </trkpt>
      <trkpt lat="42.42008" lon="0.01994">
        <ele>1063.7</ele>
        <time>2016-07-31T08:25:31Z</time>
      </trkpt>
      <trkpt lat="42.42012" lon="0.01992">
        <ele>1063.8</ele>
        <time>2016-07-31T08:25:33Z</time>
      </trkpt>
      <trkpt lat="42.42016" lon="0.01989">
        <ele>1063.9</ele>
        <time>2016-07-31T08:25:35Z</time>
      </trkpt>
      <trkpt lat="42.42019" lon="0.01985">
        <ele>1063.8</ele>
        <time>2016-07-31T08:25:37Z</time>
      </trkpt>
      <trkpt lat="42.42022" lon="0.01982">
        <ele>1063.8</ele>
        <time>2016-07-31T08:25:39Z</time>
      </trkpt>
      <trkpt lat="42.42027" lon="0.01981">
        <ele>1064.2</ele>
        <time>2016-07-31T08:25:41Z</time>
      </trkpt>
      <trkpt lat="42.42032" lon="0.0198">
        <ele>1064.4</ele>
        <time>2016-07-31T08:25:43Z</time>
      </trkpt>
      <trkpt lat="42.42036" lon="0.01978">
        <ele>1064.6</ele>
        <time>2016-07-31T08:25:45Z</time>
      </trkpt>
      <trkpt lat="42.4204" lon="0.01975">
        <ele>1064.7</ele>
        <time>2016-07-31T08:25:47Z</time>
      </trkpt>
      <trkpt lat="42.42044" lon="0.01974">
        <ele>1064.9</ele>
        <time>2016-07-31T08:25:49Z</time>
      </trkpt>
      <trkpt lat="42.42048" lon="0.01971">
        <ele>1065.1</ele>
        <time>2016-07-31T08:25:51Z</time>
      </trkpt>
      <trkpt lat="42.42052" lon="0.0197">
        <ele>1065.3</ele>
        <time>2016-07-31T08:25:53Z</time>
      </trkpt>
      <trkpt lat="42.42055" lon="0.01968">
        <ele>1065.5</ele>
        <time>2016-07-31T08:25:55Z</time>
      </trkpt>
      <trkpt lat="42.42059" lon="0.01966">
        <ele>1065.7</ele>
        <time>2016-07-31T08:25:57Z</time>
      </trkpt>
      <trkpt lat="42.42063" lon="0.01964">
        <ele>1065.8</ele>
        <time>2016-07-31T08:25:59Z</time>
      </trkpt>
      <trkpt lat="42.42067" lon="0.01962">
        <ele>1066.1</ele>
        <time>2016-07-31T08:26:01Z</time>
      </trkpt>
      <trkpt lat="42.42072" lon="0.01959">
        <ele>1066.3</ele>
        <time>2016-07-31T08:26:04Z</time>
      </trkpt>
      <trkpt lat="42.42075" lon="0.01956">
        <ele>1066.4</ele>
        <time>2016-07-31T08:26:06Z</time>
      </trkpt>
      <trkpt lat="42.42079" lon="0.01954">
        <ele>1066.5</ele>
        <time>2016-07-31T08:26:08Z</time>
      </trkpt>
      <trkpt lat="42.42083" lon="0.01952">
        <ele>1066.8</ele>
        <time>2016-07-31T08:26:10Z</time>
      </trkpt>
      <trkpt lat="42.42088" lon="0.0195">
        <ele>1067</ele>
        <time>2016-07-31T08:26:12Z</time>
      </trkpt>
      <trkpt lat="42.42092" lon="0.01948">
        <ele>1067.2</ele>
        <time>2016-07-31T08:26:14Z</time>
      </trkpt>
      <trkpt lat="42.42095" lon="0.01946">
        <ele>1067.3</ele>
        <time>2016-07-31T08:26:16Z</time>
      </trkpt>
      <trkpt lat="42.42099" lon="0.01944">
        <ele>1067.5</ele>
        <time>2016-07-31T08:26:18Z</time>
      </trkpt>
      <trkpt lat="42.42103" lon="0.01943">
        <ele>1067.7</ele>
        <time>2016-07-31T08:26:20Z</time>
      </trkpt>
      <trkpt lat="42.42107" lon="0.01943">
        <ele>1068.2</ele>
        <time>2016-07-31T08:26:22Z</time>
      </trkpt>
      <trkpt lat="42.42111" lon="0.01945">
        <ele>1068.8</ele>
        <time>2016-07-31T08:26:24Z</time>
      </trkpt>
      <trkpt lat="42.42113" lon="0.0195">
        <ele>1069.6</ele>
        <time>2016-07-31T08:26:26Z</time>
      </trkpt>
      <trkpt lat="42.42115" lon="0.01956">
        <ele>1070.6</ele>
        <time>2016-07-31T08:26:28Z</time>
      </trkpt>
      <trkpt lat="42.42115" lon="0.0196">
        <ele>1071.1</ele>
        <time>2016-07-31T08:26:29Z</time>
      </trkpt>
      <trkpt lat="42.42116" lon="0.01964">
        <ele>1071.5</ele>
        <time>2016-07-31T08:26:30Z</time>
      </trkpt>
      <trkpt lat="42.42116" lon="0.01968">
        <ele>1071.9</ele>
        <time>2016-07-31T08:26:31Z</time>
      </trkpt>
      <trkpt lat="42.42117" lon="0.01973">
        <ele>1072.4</ele>
        <time>2016-07-31T08:26:32Z</time>
      </trkpt>
      <trkpt lat="42.42117" lon="0.01978">
        <ele>1072.9</ele>
        <time>2016-07-31T08:26:33Z</time>
      </trkpt>
      <trkpt lat="42.42118" lon="0.01983">
        <ele>1073.4</ele>
        <time>2016-07-31T08:26:34Z</time>
      </trkpt>
      <trkpt lat="42.42119" lon="0.01988">
        <ele>1073.9</ele>
        <time>2016-07-31T08:26:35Z</time>
      </trkpt>
      <trkpt lat="42.4212" lon="0.01993">
        <ele>1074.4</ele>
        <time>2016-07-31T08:26:36Z</time>
      </trkpt>
      <trkpt lat="42.42121" lon="0.01998">
        <ele>1074.9</ele>
        <time>2016-07-31T08:26:37Z</time>
      </trkpt>
      <trkpt lat="42.42121" lon="0.02003">
        <ele>1075.4</ele>
        <time>2016-07-31T08:26:38Z</time>
      </trkpt>
      <trkpt lat="42.42122" lon="0.02007">
        <ele>1075.9</ele>
        <time>2016-07-31T08:26:39Z</time>
      </trkpt>
      <trkpt lat="42.42123" lon="0.02012">
        <ele>1076.3</ele>
        <time>2016-07-31T08:26:40Z</time>
      </trkpt>
      <trkpt lat="42.42124" lon="0.02016">
        <ele>1076.7</ele>
        <time>2016-07-31T08:26:41Z</time>
      </trkpt>
      <trkpt lat="42.42125" lon="0.0202">
        <ele>1077.2</ele>
        <time>2016-07-31T08:26:42Z</time>
      </trkpt>
      <trkpt lat="42.42126" lon="0.02024">
        <ele>1077.7</ele>
        <time>2016-07-31T08:26:43Z</time>
      </trkpt>
      <trkpt lat="42.42127" lon="0.02028">
        <ele>1078.2</ele>
        <time>2016-07-31T08:26:44Z</time>
      </trkpt>
      <trkpt lat="42.42129" lon="0.02032">
        <ele>1078.7</ele>
        <time>2016-07-31T08:26:45Z</time>
      </trkpt>
      <trkpt lat="42.4213" lon="0.02037">
        <ele>1079.3</ele>
        <time>2016-07-31T08:26:46Z</time>
      </trkpt>
      <trkpt lat="42.42131" lon="0.02041">
        <ele>1079.8</ele>
        <time>2016-07-31T08:26:47Z</time>
      </trkpt>
      <trkpt lat="42.42133" lon="0.02045">
        <ele>1080.1</ele>
        <time>2016-07-31T08:26:48Z</time>
      </trkpt>
      <trkpt lat="42.42134" lon="0.02049">
        <ele>1080.3</ele>
        <time>2016-07-31T08:26:49Z</time>
      </trkpt>
      <trkpt lat="42.42136" lon="0.02054">
        <ele>1080.5</ele>
        <time>2016-07-31T08:26:50Z</time>
      </trkpt>
      <trkpt lat="42.42138" lon="0.02058">
        <ele>1080.7</ele>
        <time>2016-07-31T08:26:51Z</time>
      </trkpt>
      <trkpt lat="42.4214" lon="0.02062">
        <ele>1080.9</ele>
        <time>2016-07-31T08:26:52Z</time>
      </trkpt>
      <trkpt lat="42.42144" lon="0.0207">
        <ele>1081.4</ele>
        <time>2016-07-31T08:26:54Z</time>
      </trkpt>
      <trkpt lat="42.42146" lon="0.02074">
        <ele>1081.6</ele>
        <time>2016-07-31T08:26:55Z</time>
      </trkpt>
      <trkpt lat="42.42148" lon="0.02078">
        <ele>1081.8</ele>
        <time>2016-07-31T08:26:56Z</time>
      </trkpt>
      <trkpt lat="42.4215" lon="0.02081">
        <ele>1082</ele>
        <time>2016-07-31T08:26:57Z</time>
      </trkpt>
      <trkpt lat="42.42151" lon="0.02085">
        <ele>1082.1</ele>
        <time>2016-07-31T08:26:58Z</time>
      </trkpt>
      <trkpt lat="42.42153" lon="0.02089">
        <ele>1082.3</ele>
        <time>2016-07-31T08:26:59Z</time>
      </trkpt>
      <trkpt lat="42.42154" lon="0.02094">
        <ele>1082.3</ele>
        <time>2016-07-31T08:27:00Z</time>
      </trkpt>
      <trkpt lat="42.42155" lon="0.02098">
        <ele>1082.4</ele>
        <time>2016-07-31T08:27:01Z</time>
      </trkpt>
      <trkpt lat="42.42156" lon="0.02102">
        <ele>1082.4</ele>
        <time>2016-07-31T08:27:02Z</time>
      </trkpt>
      <trkpt lat="42.42157" lon="0.02106">
        <ele>1082.4</ele>
        <time>2016-07-31T08:27:03Z</time>
      </trkpt>
      <trkpt lat="42.42158" lon="0.0211">
        <ele>1082.4</ele>
        <time>2016-07-31T08:27:04Z</time>
      </trkpt>
      <trkpt lat="42.42158" lon="0.02114">
        <ele>1082.4</ele>
        <time>2016-07-31T08:27:05Z</time>
      </trkpt>
      <trkpt lat="42.42159" lon="0.02117">
        <ele>1082.4</ele>
        <time>2016-07-31T08:27:06Z</time>
      </trkpt>
      <trkpt lat="42.4216" lon="0.02121">
        <ele>1082.4</ele>
        <time>2016-07-31T08:27:07Z</time>
      </trkpt>
      <trkpt lat="42.4216" lon="0.02125">
        <ele>1082.4</ele>
        <time>2016-07-31T08:27:08Z</time>
      </trkpt>
      <trkpt lat="42.4216" lon="0.02128">
        <ele>1082.6</ele>
        <time>2016-07-31T08:27:09Z</time>
      </trkpt>
      <trkpt lat="42.42161" lon="0.02132">
        <ele>1083</ele>
        <time>2016-07-31T08:27:10Z</time>
      </trkpt>
      <trkpt lat="42.42161" lon="0.02136">
        <ele>1083.3</ele>
        <time>2016-07-31T08:27:11Z</time>
      </trkpt>
      <trkpt lat="42.42162" lon="0.0214">
        <ele>1083.6</ele>
        <time>2016-07-31T08:27:12Z</time>
      </trkpt>
      <trkpt lat="42.42163" lon="0.02143">
        <ele>1083.9</ele>
        <time>2016-07-31T08:27:13Z</time>
      </trkpt>
      <trkpt lat="42.42163" lon="0.02147">
        <ele>1084.2</ele>
        <time>2016-07-31T08:27:14Z</time>
      </trkpt>
      <trkpt lat="42.42165" lon="0.02154">
        <ele>1084.8</ele>
        <time>2016-07-31T08:27:16Z</time>
      </trkpt>
      <trkpt lat="42.42166" lon="0.0216">
        <ele>1085.3</ele>
        <time>2016-07-31T08:27:18Z</time>
      </trkpt>
      <trkpt lat="42.42168" lon="0.02167">
        <ele>1085.8</ele>
        <time>2016-07-31T08:27:20Z</time>
      </trkpt>
      <trkpt lat="42.42169" lon="0.02173">
        <ele>1086.2</ele>
        <time>2016-07-31T08:27:22Z</time>
      </trkpt>
      <trkpt lat="42.4217" lon="0.02179">
        <ele>1086.7</ele>
        <time>2016-07-31T08:27:24Z</time>
      </trkpt>
      <trkpt lat="42.42171" lon="0.02185">
        <ele>1087</ele>
        <time>2016-07-31T08:27:26Z</time>
      </trkpt>
      <trkpt lat="42.42172" lon="0.0219">
        <ele>1087.4</ele>
        <time>2016-07-31T08:27:28Z</time>
      </trkpt>
      <trkpt lat="42.42173" lon="0.02196">
        <ele>1087.7</ele>
        <time>2016-07-31T08:27:30Z</time>
      </trkpt>
      <trkpt lat="42.42174" lon="0.02201">
        <ele>1088</ele>
        <time>2016-07-31T08:27:32Z</time>
      </trkpt>
      <trkpt lat="42.42175" lon="0.02207">
        <ele>1088.3</ele>
        <time>2016-07-31T08:27:34Z</time>
      </trkpt>
      <trkpt lat="42.42176" lon="0.02212">
        <ele>1088.7</ele>
        <time>2016-07-31T08:27:36Z</time>
      </trkpt>
      <trkpt lat="42.42177" lon="0.02218">
        <ele>1089.1</ele>
        <time>2016-07-31T08:27:38Z</time>
      </trkpt>
      <trkpt lat="42.42178" lon="0.02223">
        <ele>1089.5</ele>
        <time>2016-07-31T08:27:40Z</time>
      </trkpt>
      <trkpt lat="42.42179" lon="0.02228">
        <ele>1090</ele>
        <time>2016-07-31T08:27:42Z</time>
      </trkpt>
      <trkpt lat="42.4218" lon="0.02234">
        <ele>1090.4</ele>
        <time>2016-07-31T08:27:44Z</time>
      </trkpt>
      <trkpt lat="42.42181" lon="0.02239">
        <ele>1090.7</ele>
        <time>2016-07-31T08:27:46Z</time>
      </trkpt>
      <trkpt lat="42.42182" lon="0.02244">
        <ele>1091.1</ele>
        <time>2016-07-31T08:27:48Z</time>
      </trkpt>
      <trkpt lat="42.42183" lon="0.02249">
        <ele>1091.5</ele>
        <time>2016-07-31T08:27:50Z</time>
      </trkpt>
      <trkpt lat="42.42184" lon="0.02254">
        <ele>1091.9</ele>
        <time>2016-07-31T08:27:52Z</time>
      </trkpt>
      <trkpt lat="42.42185" lon="0.02259">
        <ele>1092.2</ele>
        <time>2016-07-31T08:27:54Z</time>
      </trkpt>
      <trkpt lat="42.42186" lon="0.02264">
        <ele>1092.6</ele>
        <time>2016-07-31T08:27:56Z</time>
      </trkpt>
      <trkpt lat="42.42187" lon="0.02268">
        <ele>1092.9</ele>
        <time>2016-07-31T08:27:58Z</time>
      </trkpt>
      <trkpt lat="42.42188" lon="0.02273">
        <ele>1093.3</ele>
        <time>2016-07-31T08:28:00Z</time>
      </trkpt>
      <trkpt lat="42.42189" lon="0.02278">
        <ele>1093.6</ele>
        <time>2016-07-31T08:28:02Z</time>
      </trkpt>
      <trkpt lat="42.4219" lon="0.02282">
        <ele>1093.9</ele>
        <time>2016-07-31T08:28:04Z</time>
      </trkpt>
      <trkpt lat="42.42192" lon="0.02287">
        <ele>1094.2</ele>
        <time>2016-07-31T08:28:06Z</time>
      </trkpt>
      <trkpt lat="42.42193" lon="0.02291">
        <ele>1094.5</ele>
        <time>2016-07-31T08:28:08Z</time>
      </trkpt>
      <trkpt lat="42.42194" lon="0.02296">
        <ele>1094.9</ele>
        <time>2016-07-31T08:28:10Z</time>
      </trkpt>
      <trkpt lat="42.42195" lon="0.02301">
        <ele>1095.1</ele>
        <time>2016-07-31T08:28:12Z</time>
      </trkpt>
      <trkpt lat="42.42197" lon="0.02305">
        <ele>1095.4</ele>
        <time>2016-07-31T08:28:14Z</time>
      </trkpt>
      <trkpt lat="42.42198" lon="0.0231">
        <ele>1095.8</ele>
        <time>2016-07-31T08:28:16Z</time>
      </trkpt>
      <trkpt lat="42.42199" lon="0.02315">
        <ele>1096.1</ele>
        <time>2016-07-31T08:28:18Z</time>
      </trkpt>
      <trkpt lat="42.422" lon="0.02319">
        <ele>1096.4</ele>
        <time>2016-07-31T08:28:20Z</time>
      </trkpt>
      <trkpt lat="42.42202" lon="0.02323">
        <ele>1096.7</ele>
        <time>2016-07-31T08:28:22Z</time>
      </trkpt>
      <trkpt lat="42.42203" lon="0.02327">
        <ele>1097</ele>
        <time>2016-07-31T08:28:24Z</time>
      </trkpt>
      <trkpt lat="42.42205" lon="0.02331">
        <ele>1097.3</ele>
        <time>2016-07-31T08:28:26Z</time>
      </trkpt>
      <trkpt lat="42.42207" lon="0.02335">
        <ele>1097.7</ele>
        <time>2016-07-31T08:28:28Z</time>
      </trkpt>
      <trkpt lat="42.42208" lon="0.0234">
        <ele>1098.1</ele>
        <time>2016-07-31T08:28:30Z</time>
      </trkpt>
      <trkpt lat="42.42208" lon="0.02346">
        <ele>1098.6</ele>
        <time>2016-07-31T08:28:32Z</time>
      </trkpt>
      <trkpt lat="42.42209" lon="0.02352">
        <ele>1099</ele>
        <time>2016-07-31T08:28:34Z</time>
      </trkpt>
      <trkpt lat="42.4221" lon="0.02358">
        <ele>1099.5</ele>
        <time>2016-07-31T08:28:36Z</time>
      </trkpt>
      <trkpt lat="42.4221" lon="0.02364">
        <ele>1100</ele>
        <time>2016-07-31T08:28:38Z</time>
      </trkpt>
      <trkpt lat="42.4221" lon="0.0237">
        <ele>1100.5</ele>
        <time>2016-07-31T08:28:40Z</time>
      </trkpt>
      <trkpt lat="42.4221" lon="0.02376">
        <ele>1101</ele>
        <time>2016-07-31T08:28:42Z</time>
      </trkpt>
      <trkpt lat="42.4221" lon="0.02383">
        <ele>1101</ele>
        <time>2016-07-31T08:28:44Z</time>
      </trkpt>
      <trkpt lat="42.4221" lon="0.02387">
        <ele>1101.1</ele>
        <time>2016-07-31T08:28:45Z</time>
      </trkpt>
      <trkpt lat="42.42211" lon="0.02391">
        <ele>1101.1</ele>
        <time>2016-07-31T08:28:46Z</time>
      </trkpt>
      <trkpt lat="42.42211" lon="0.02394">
        <ele>1101.1</ele>
        <time>2016-07-31T08:28:47Z</time>
      </trkpt>
      <trkpt lat="42.42212" lon="0.02398">
        <ele>1101.1</ele>
        <time>2016-07-31T08:28:48Z</time>
      </trkpt>
      <trkpt lat="42.42213" lon="0.02402">
        <ele>1101.1</ele>
        <time>2016-07-31T08:28:49Z</time>
      </trkpt>
      <trkpt lat="42.42213" lon="0.02406">
        <ele>1101.1</ele>
        <time>2016-07-31T08:28:50Z</time>
      </trkpt>
      <trkpt lat="42.42214" lon="0.0241">
        <ele>1101.1</ele>
        <time>2016-07-31T08:28:51Z</time>
      </trkpt>
      <trkpt lat="42.42216" lon="0.02414">
        <ele>1101.1</ele>
        <time>2016-07-31T08:28:52Z</time>
      </trkpt>
      <trkpt lat="42.42217" lon="0.02417">
        <ele>1101.1</ele>
        <time>2016-07-31T08:28:53Z</time>
      </trkpt>
      <trkpt lat="42.42218" lon="0.02421">
        <ele>1101.1</ele>
        <time>2016-07-31T08:28:54Z</time>
      </trkpt>
      <trkpt lat="42.42219" lon="0.02425">
        <ele>1101.1</ele>
        <time>2016-07-31T08:28:55Z</time>
      </trkpt>
      <trkpt lat="42.4222" lon="0.02428">
        <ele>1101</ele>
        <time>2016-07-31T08:28:56Z</time>
      </trkpt>
      <trkpt lat="42.42222" lon="0.02432">
        <ele>1101</ele>
        <time>2016-07-31T08:28:57Z</time>
      </trkpt>
      <trkpt lat="42.42223" lon="0.02435">
        <ele>1100.9</ele>
        <time>2016-07-31T08:28:58Z</time>
      </trkpt>
      <trkpt lat="42.42225" lon="0.02438">
        <ele>1100.9</ele>
        <time>2016-07-31T08:28:59Z</time>
      </trkpt>
      <trkpt lat="42.42226" lon="0.02441">
        <ele>1100.8</ele>
        <time>2016-07-31T08:29:00Z</time>
      </trkpt>
      <trkpt lat="42.42228" lon="0.02444">
        <ele>1100.7</ele>
        <time>2016-07-31T08:29:01Z</time>
      </trkpt>
      <trkpt lat="42.4223" lon="0.02447">
        <ele>1100.6</ele>
        <time>2016-07-31T08:29:02Z</time>
      </trkpt>
      <trkpt lat="42.42231" lon="0.0245">
        <ele>1100.6</ele>
        <time>2016-07-31T08:29:03Z</time>
      </trkpt>
      <trkpt lat="42.42233" lon="0.02454">
        <ele>1100.5</ele>
        <time>2016-07-31T08:29:04Z</time>
      </trkpt>
      <trkpt lat="42.42234" lon="0.02457">
        <ele>1100.5</ele>
        <time>2016-07-31T08:29:05Z</time>
      </trkpt>
      <trkpt lat="42.42235" lon="0.02461">
        <ele>1100.4</ele>
        <time>2016-07-31T08:29:06Z</time>
      </trkpt>
      <trkpt lat="42.42237" lon="0.02464">
        <ele>1100.4</ele>
        <time>2016-07-31T08:29:07Z</time>
      </trkpt>
      <trkpt lat="42.42238" lon="0.02468">
        <ele>1100.4</ele>
        <time>2016-07-31T08:29:08Z</time>
      </trkpt>
      <trkpt lat="42.42239" lon="0.02472">
        <ele>1100.5</ele>
        <time>2016-07-31T08:29:09Z</time>
      </trkpt>
      <trkpt lat="42.42239" lon="0.02476">
        <ele>1100.5</ele>
        <time>2016-07-31T08:29:10Z</time>
      </trkpt>
      <trkpt lat="42.4224" lon="0.02479">
        <ele>1100.6</ele>
        <time>2016-07-31T08:29:11Z</time>
      </trkpt>
      <trkpt lat="42.42241" lon="0.02483">
        <ele>1100.6</ele>
        <time>2016-07-31T08:29:12Z</time>
      </trkpt>
      <trkpt lat="42.42242" lon="0.02486">
        <ele>1100.7</ele>
        <time>2016-07-31T08:29:13Z</time>
      </trkpt>
      <trkpt lat="42.42243" lon="0.02493">
        <ele>1100.8</ele>
        <time>2016-07-31T08:29:15Z</time>
      </trkpt>
      <trkpt lat="42.42244" lon="0.02497">
        <ele>1100.8</ele>
        <time>2016-07-31T08:29:16Z</time>
      </trkpt>
      <trkpt lat="42.42245" lon="0.025">
        <ele>1100.9</ele>
        <time>2016-07-31T08:29:17Z</time>
      </trkpt>
      <trkpt lat="42.42246" lon="0.02504">
        <ele>1101</ele>
        <time>2016-07-31T08:29:18Z</time>
      </trkpt>
      <trkpt lat="42.42247" lon="0.02508">
        <ele>1101.1</ele>
        <time>2016-07-31T08:29:19Z</time>
      </trkpt>
      <trkpt lat="42.42247" lon="0.02511">
        <ele>1101.1</ele>
        <time>2016-07-31T08:29:20Z</time>
      </trkpt>
      <trkpt lat="42.42248" lon="0.02515">
        <ele>1101.2</ele>
        <time>2016-07-31T08:29:21Z</time>
      </trkpt>
      <trkpt lat="42.42249" lon="0.02519">
        <ele>1101.3</ele>
        <time>2016-07-31T08:29:22Z</time>
      </trkpt>
      <trkpt lat="42.4225" lon="0.02523">
        <ele>1101.4</ele>
        <time>2016-07-31T08:29:23Z</time>
      </trkpt>
      <trkpt lat="42.42251" lon="0.02527">
        <ele>1101.6</ele>
        <time>2016-07-31T08:29:24Z</time>
      </trkpt>
      <trkpt lat="42.42252" lon="0.02532">
        <ele>1101.7</ele>
        <time>2016-07-31T08:29:25Z</time>
      </trkpt>
      <trkpt lat="42.42253" lon="0.02536">
        <ele>1101.8</ele>
        <time>2016-07-31T08:29:26Z</time>
      </trkpt>
      <trkpt lat="42.42254" lon="0.0254">
        <ele>1101.9</ele>
        <time>2016-07-31T08:29:27Z</time>
      </trkpt>
      <trkpt lat="42.42255" lon="0.02544">
        <ele>1102</ele>
        <time>2016-07-31T08:29:28Z</time>
      </trkpt>
      <trkpt lat="42.42257" lon="0.02549">
        <ele>1102.1</ele>
        <time>2016-07-31T08:29:29Z</time>
      </trkpt>
      <trkpt lat="42.42258" lon="0.02552">
        <ele>1102.1</ele>
        <time>2016-07-31T08:29:30Z</time>
      </trkpt>
      <trkpt lat="42.42259" lon="0.02556">
        <ele>1102.1</ele>
        <time>2016-07-31T08:29:31Z</time>
      </trkpt>
      <trkpt lat="42.42261" lon="0.0256">
        <ele>1102.2</ele>
        <time>2016-07-31T08:29:32Z</time>
      </trkpt>
      <trkpt lat="42.42262" lon="0.02564">
        <ele>1102.2</ele>
        <time>2016-07-31T08:29:33Z</time>
      </trkpt>
      <trkpt lat="42.42264" lon="0.02567">
        <ele>1102.3</ele>
        <time>2016-07-31T08:29:34Z</time>
      </trkpt>
      <trkpt lat="42.42265" lon="0.02571">
        <ele>1102.4</ele>
        <time>2016-07-31T08:29:35Z</time>
      </trkpt>
      <trkpt lat="42.42266" lon="0.02575">
        <ele>1102.4</ele>
        <time>2016-07-31T08:29:36Z</time>
      </trkpt>
      <trkpt lat="42.42268" lon="0.02579">
        <ele>1102.5</ele>
        <time>2016-07-31T08:29:37Z</time>
      </trkpt>
      <trkpt lat="42.42269" lon="0.02582">
        <ele>1102.6</ele>
        <time>2016-07-31T08:29:38Z</time>
      </trkpt>
      <trkpt lat="42.42271" lon="0.02585">
        <ele>1102.7</ele>
        <time>2016-07-31T08:29:39Z</time>
      </trkpt>
      <trkpt lat="42.42273" lon="0.02587">
        <ele>1102.7</ele>
        <time>2016-07-31T08:29:40Z</time>
      </trkpt>
      <trkpt lat="42.42276" lon="0.0259">
        <ele>1102.8</ele>
        <time>2016-07-31T08:29:41Z</time>
      </trkpt>
      <trkpt lat="42.42278" lon="0.02592">
        <ele>1102.9</ele>
        <time>2016-07-31T08:29:42Z</time>
      </trkpt>
      <trkpt lat="42.42281" lon="0.02595">
        <ele>1103</ele>
        <time>2016-07-31T08:29:43Z</time>
      </trkpt>
      <trkpt lat="42.42283" lon="0.02597">
        <ele>1103.1</ele>
        <time>2016-07-31T08:29:44Z</time>
      </trkpt>
      <trkpt lat="42.42285" lon="0.02599">
        <ele>1103.2</ele>
        <time>2016-07-31T08:29:45Z</time>
      </trkpt>
      <trkpt lat="42.42288" lon="0.02601">
        <ele>1103.3</ele>
        <time>2016-07-31T08:29:46Z</time>
      </trkpt>
      <trkpt lat="42.4229" lon="0.02604">
        <ele>1103.4</ele>
        <time>2016-07-31T08:29:47Z</time>
      </trkpt>
      <trkpt lat="42.42292" lon="0.02606">
        <ele>1103.5</ele>
        <time>2016-07-31T08:29:48Z</time>
      </trkpt>
      <trkpt lat="42.42296" lon="0.0261">
        <ele>1103.5</ele>
        <time>2016-07-31T08:29:50Z</time>
      </trkpt>
      <trkpt lat="42.423" lon="0.02614">
        <ele>1103.5</ele>
        <time>2016-07-31T08:29:52Z</time>
      </trkpt>
      <trkpt lat="42.42305" lon="0.02617">
        <ele>1103.5</ele>
        <time>2016-07-31T08:29:54Z</time>
      </trkpt>
      <trkpt lat="42.42308" lon="0.02619">
        <ele>1103.5</ele>
        <time>2016-07-31T08:29:55Z</time>
      </trkpt>
      <trkpt lat="42.4231" lon="0.02621">
        <ele>1103.6</ele>
        <time>2016-07-31T08:29:56Z</time>
      </trkpt>
      <trkpt lat="42.42313" lon="0.02624">
        <ele>1103.7</ele>
        <time>2016-07-31T08:29:57Z</time>
      </trkpt>
      <trkpt lat="42.42315" lon="0.02627">
        <ele>1103.7</ele>
        <time>2016-07-31T08:29:58Z</time>
      </trkpt>
      <trkpt lat="42.42317" lon="0.02629">
        <ele>1103.7</ele>
        <time>2016-07-31T08:29:59Z</time>
      </trkpt>
      <trkpt lat="42.42319" lon="0.02632">
        <ele>1103.7</ele>
        <time>2016-07-31T08:30:00Z</time>
      </trkpt>
      <trkpt lat="42.42322" lon="0.02635">
        <ele>1103.7</ele>
        <time>2016-07-31T08:30:01Z</time>
      </trkpt>
      <trkpt lat="42.42324" lon="0.02638">
        <ele>1103.7</ele>
        <time>2016-07-31T08:30:02Z</time>
      </trkpt>
      <trkpt lat="42.42326" lon="0.02641">
        <ele>1103.8</ele>
        <time>2016-07-31T08:30:03Z</time>
      </trkpt>
      <trkpt lat="42.42328" lon="0.02645">
        <ele>1103.8</ele>
        <time>2016-07-31T08:30:04Z</time>
      </trkpt>
      <trkpt lat="42.42331" lon="0.02648">
        <ele>1103.9</ele>
        <time>2016-07-31T08:30:05Z</time>
      </trkpt>
      <trkpt lat="42.42333" lon="0.02651">
        <ele>1104</ele>
        <time>2016-07-31T08:30:06Z</time>
      </trkpt>
      <trkpt lat="42.42335" lon="0.02654">
        <ele>1104</ele>
        <time>2016-07-31T08:30:07Z</time>
      </trkpt>
      <trkpt lat="42.42338" lon="0.02656">
        <ele>1104.2</ele>
        <time>2016-07-31T08:30:08Z</time>
      </trkpt>
      <trkpt lat="42.4234" lon="0.02659">
        <ele>1104.3</ele>
        <time>2016-07-31T08:30:09Z</time>
      </trkpt>
      <trkpt lat="42.42343" lon="0.02662">
        <ele>1104.4</ele>
        <time>2016-07-31T08:30:10Z</time>
      </trkpt>
      <trkpt lat="42.42346" lon="0.02664">
        <ele>1104.5</ele>
        <time>2016-07-31T08:30:11Z</time>
      </trkpt>
      <trkpt lat="42.42348" lon="0.02667">
        <ele>1104.7</ele>
        <time>2016-07-31T08:30:12Z</time>
      </trkpt>
      <trkpt lat="42.42351" lon="0.02669">
        <ele>1104.9</ele>
        <time>2016-07-31T08:30:13Z</time>
      </trkpt>
      <trkpt lat="42.42353" lon="0.02671">
        <ele>1105</ele>
        <time>2016-07-31T08:30:14Z</time>
      </trkpt>
      <trkpt lat="42.42356" lon="0.02674">
        <ele>1105.2</ele>
        <time>2016-07-31T08:30:15Z</time>
      </trkpt>
      <trkpt lat="42.42358" lon="0.02676">
        <ele>1105.4</ele>
        <time>2016-07-31T08:30:16Z</time>
      </trkpt>
      <trkpt lat="42.4236" lon="0.02678">
        <ele>1105.6</ele>
        <time>2016-07-31T08:30:17Z</time>
      </trkpt>
      <trkpt lat="42.42363" lon="0.0268">
        <ele>1105.8</ele>
        <time>2016-07-31T08:30:18Z</time>
      </trkpt>
      <trkpt lat="42.42365" lon="0.02682">
        <ele>1106</ele>
        <time>2016-07-31T08:30:19Z</time>
      </trkpt>
      <trkpt lat="42.4237" lon="0.02686">
        <ele>1106.4</ele>
        <time>2016-07-31T08:30:21Z</time>
      </trkpt>
      <trkpt lat="42.42372" lon="0.02688">
        <ele>1106.6</ele>
        <time>2016-07-31T08:30:22Z</time>
      </trkpt>
      <trkpt lat="42.42374" lon="0.0269">
        <ele>1106.8</ele>
        <time>2016-07-31T08:30:23Z</time>
      </trkpt>
      <trkpt lat="42.42377" lon="0.02692">
        <ele>1106.9</ele>
        <time>2016-07-31T08:30:24Z</time>
      </trkpt>
      <trkpt lat="42.42379" lon="0.02693">
        <ele>1106.8</ele>
        <time>2016-07-31T08:30:25Z</time>
      </trkpt>
      <trkpt lat="42.42382" lon="0.02695">
        <ele>1106.7</ele>
        <time>2016-07-31T08:30:26Z</time>
      </trkpt>
      <trkpt lat="42.42385" lon="0.02696">
        <ele>1106.7</ele>
        <time>2016-07-31T08:30:27Z</time>
      </trkpt>
      <trkpt lat="42.42387" lon="0.02698">
        <ele>1106.7</ele>
        <time>2016-07-31T08:30:28Z</time>
      </trkpt>
      <trkpt lat="42.4239" lon="0.02699">
        <ele>1106.7</ele>
        <time>2016-07-31T08:30:29Z</time>
      </trkpt>
      <trkpt lat="42.42393" lon="0.02701">
        <ele>1106.7</ele>
        <time>2016-07-31T08:30:30Z</time>
      </trkpt>
      <trkpt lat="42.42395" lon="0.02703">
        <ele>1106.7</ele>
        <time>2016-07-31T08:30:31Z</time>
      </trkpt>
      <trkpt lat="42.42398" lon="0.02704">
        <ele>1106.7</ele>
        <time>2016-07-31T08:30:32Z</time>
      </trkpt>
      <trkpt lat="42.42401" lon="0.02706">
        <ele>1106.8</ele>
        <time>2016-07-31T08:30:33Z</time>
      </trkpt>
      <trkpt lat="42.42405" lon="0.02709">
        <ele>1106.9</ele>
        <time>2016-07-31T08:30:35Z</time>
      </trkpt>
      <trkpt lat="42.42408" lon="0.02711">
        <ele>1106.9</ele>
        <time>2016-07-31T08:30:37Z</time>
      </trkpt>
      <trkpt lat="42.42411" lon="0.02713">
        <ele>1106.9</ele>
        <time>2016-07-31T08:30:39Z</time>
      </trkpt>
      <trkpt lat="42.42415" lon="0.02716">
        <ele>1107</ele>
        <time>2016-07-31T08:30:41Z</time>
      </trkpt>
      <trkpt lat="42.42419" lon="0.02718">
        <ele>1107</ele>
        <time>2016-07-31T08:30:43Z</time>
      </trkpt>
      <trkpt lat="42.42422" lon="0.02722">
        <ele>1107.1</ele>
        <time>2016-07-31T08:30:45Z</time>
      </trkpt>
      <trkpt lat="42.42426" lon="0.02725">
        <ele>1107.3</ele>
        <time>2016-07-31T08:30:47Z</time>
      </trkpt>
      <trkpt lat="42.42431" lon="0.02728">
        <ele>1107.4</ele>
        <time>2016-07-31T08:30:49Z</time>
      </trkpt>
      <trkpt lat="42.42433" lon="0.0273">
        <ele>1107.5</ele>
        <time>2016-07-31T08:30:50Z</time>
      </trkpt>
      <trkpt lat="42.42436" lon="0.02731">
        <ele>1107.6</ele>
        <time>2016-07-31T08:30:51Z</time>
      </trkpt>
      <trkpt lat="42.42439" lon="0.02733">
        <ele>1107.7</ele>
        <time>2016-07-31T08:30:52Z</time>
      </trkpt>
      <trkpt lat="42.42442" lon="0.02735">
        <ele>1107.9</ele>
        <time>2016-07-31T08:30:53Z</time>
      </trkpt>
      <trkpt lat="42.42444" lon="0.02737">
        <ele>1108.1</ele>
        <time>2016-07-31T08:30:54Z</time>
      </trkpt>
      <trkpt lat="42.42447" lon="0.02739">
        <ele>1108.3</ele>
        <time>2016-07-31T08:30:55Z</time>
      </trkpt>
      <trkpt lat="42.4245" lon="0.02741">
        <ele>1108.5</ele>
        <time>2016-07-31T08:30:56Z</time>
      </trkpt>
      <trkpt lat="42.42452" lon="0.02744">
        <ele>1108.8</ele>
        <time>2016-07-31T08:30:57Z</time>
      </trkpt>
      <trkpt lat="42.42455" lon="0.02746">
        <ele>1109</ele>
        <time>2016-07-31T08:30:58Z</time>
      </trkpt>
      <trkpt lat="42.42457" lon="0.02749">
        <ele>1109.3</ele>
        <time>2016-07-31T08:30:59Z</time>
      </trkpt>
      <trkpt lat="42.4246" lon="0.02751">
        <ele>1109.5</ele>
        <time>2016-07-31T08:31:00Z</time>
      </trkpt>
      <trkpt lat="42.42462" lon="0.02753">
        <ele>1109.6</ele>
        <time>2016-07-31T08:31:01Z</time>
      </trkpt>
      <trkpt lat="42.42464" lon="0.02755">
        <ele>1109.7</ele>
        <time>2016-07-31T08:31:02Z</time>
      </trkpt>
      <trkpt lat="42.42467" lon="0.02758">
        <ele>1109.9</ele>
        <time>2016-07-31T08:31:03Z</time>
      </trkpt>
      <trkpt lat="42.4247" lon="0.02762">
        <ele>1110.2</ele>
        <time>2016-07-31T08:31:05Z</time>
      </trkpt>
      <trkpt lat="42.42474" lon="0.02766">
        <ele>1110.6</ele>
        <time>2016-07-31T08:31:07Z</time>
      </trkpt>
      <trkpt lat="42.42477" lon="0.02769">
        <ele>1110.8</ele>
        <time>2016-07-31T08:31:09Z</time>
      </trkpt>
      <trkpt lat="42.4248" lon="0.02771">
        <ele>1111</ele>
        <time>2016-07-31T08:31:11Z</time>
      </trkpt>
      <trkpt lat="42.42483" lon="0.02774">
        <ele>1111.3</ele>
        <time>2016-07-31T08:31:14Z</time>
      </trkpt>
      <trkpt lat="42.42486" lon="0.02777">
        <ele>1111.6</ele>
        <time>2016-07-31T08:31:16Z</time>
      </trkpt>
      <trkpt lat="42.42487" lon="0.02781">
        <ele>1112.2</ele>
        <time>2016-07-31T08:32:01Z</time>
      </trkpt>
      <trkpt lat="42.42489" lon="0.02784">
        <ele>1112.5</ele>
        <time>2016-07-31T08:32:03Z</time>
      </trkpt>
      <trkpt lat="42.42494" lon="0.02787">
        <ele>1112.9</ele>
        <time>2016-07-31T08:32:05Z</time>
      </trkpt>
      <trkpt lat="42.42496" lon="0.0279">
        <ele>1113.2</ele>
        <time>2016-07-31T08:32:06Z</time>
      </trkpt>
      <trkpt lat="42.42499" lon="0.02793">
        <ele>1113.5</ele>
        <time>2016-07-31T08:32:07Z</time>
      </trkpt>
      <trkpt lat="42.42501" lon="0.02796">
        <ele>1113.6</ele>
        <time>2016-07-31T08:32:08Z</time>
      </trkpt>
      <trkpt lat="42.42504" lon="0.028">
        <ele>1113.8</ele>
        <time>2016-07-31T08:32:09Z</time>
      </trkpt>
      <trkpt lat="42.42506" lon="0.02804">
        <ele>1113.9</ele>
        <time>2016-07-31T08:32:10Z</time>
      </trkpt>
      <trkpt lat="42.42508" lon="0.02807">
        <ele>1114</ele>
        <time>2016-07-31T08:32:11Z</time>
      </trkpt>
      <trkpt lat="42.42511" lon="0.0281">
        <ele>1114.1</ele>
        <time>2016-07-31T08:32:12Z</time>
      </trkpt>
      <trkpt lat="42.42514" lon="0.02813">
        <ele>1114.2</ele>
        <time>2016-07-31T08:32:13Z</time>
      </trkpt>
      <trkpt lat="42.42517" lon="0.02816">
        <ele>1114.3</ele>
        <time>2016-07-31T08:32:14Z</time>
      </trkpt>
      <trkpt lat="42.4252" lon="0.0282">
        <ele>1114.4</ele>
        <time>2016-07-31T08:32:15Z</time>
      </trkpt>
      <trkpt lat="42.42523" lon="0.02823">
        <ele>1114.6</ele>
        <time>2016-07-31T08:32:16Z</time>
      </trkpt>
      <trkpt lat="42.42526" lon="0.02827">
        <ele>1114.7</ele>
        <time>2016-07-31T08:32:17Z</time>
      </trkpt>
      <trkpt lat="42.42529" lon="0.02832">
        <ele>1114.9</ele>
        <time>2016-07-31T08:32:18Z</time>
      </trkpt>
      <trkpt lat="42.42531" lon="0.02837">
        <ele>1115.2</ele>
        <time>2016-07-31T08:32:19Z</time>
      </trkpt>
      <trkpt lat="42.42534" lon="0.02842">
        <ele>1115.4</ele>
        <time>2016-07-31T08:32:20Z</time>
      </trkpt>
      <trkpt lat="42.42536" lon="0.02848">
        <ele>1115.7</ele>
        <time>2016-07-31T08:32:21Z</time>
      </trkpt>
      <trkpt lat="42.42539" lon="0.02854">
        <ele>1116</ele>
        <time>2016-07-31T08:32:22Z</time>
      </trkpt>
      <trkpt lat="42.42542" lon="0.0286">
        <ele>1116.2</ele>
        <time>2016-07-31T08:32:23Z</time>
      </trkpt>
      <trkpt lat="42.42546" lon="0.02867">
        <ele>1116</ele>
        <time>2016-07-31T08:32:24Z</time>
      </trkpt>
      <trkpt lat="42.42549" lon="0.02874">
        <ele>1115.9</ele>
        <time>2016-07-31T08:32:25Z</time>
      </trkpt>
      <trkpt lat="42.42552" lon="0.02881">
        <ele>1115.4</ele>
        <time>2016-07-31T08:32:26Z</time>
      </trkpt>
      <trkpt lat="42.42556" lon="0.02888">
        <ele>1114.9</ele>
        <time>2016-07-31T08:32:27Z</time>
      </trkpt>
      <trkpt lat="42.42559" lon="0.02895">
        <ele>1114.4</ele>
        <time>2016-07-31T08:32:28Z</time>
      </trkpt>
      <trkpt lat="42.42563" lon="0.02901">
        <ele>1113.9</ele>
        <time>2016-07-31T08:32:29Z</time>
      </trkpt>
      <trkpt lat="42.42567" lon="0.02907">
        <ele>1113.4</ele>
        <time>2016-07-31T08:32:30Z</time>
      </trkpt>
      <trkpt lat="42.42569" lon="0.02914">
        <ele>1113</ele>
        <time>2016-07-31T08:32:31Z</time>
      </trkpt>
      <trkpt lat="42.42572" lon="0.02921">
        <ele>1112.7</ele>
        <time>2016-07-31T08:32:32Z</time>
      </trkpt>
      <trkpt lat="42.42575" lon="0.02929">
        <ele>1112.3</ele>
        <time>2016-07-31T08:32:33Z</time>
      </trkpt>
      <trkpt lat="42.42577" lon="0.02936">
        <ele>1112.1</ele>
        <time>2016-07-31T08:32:34Z</time>
      </trkpt>
      <trkpt lat="42.4258" lon="0.02944">
        <ele>1111.8</ele>
        <time>2016-07-31T08:32:35Z</time>
      </trkpt>
      <trkpt lat="42.42584" lon="0.02951">
        <ele>1111.4</ele>
        <time>2016-07-31T08:32:36Z</time>
      </trkpt>
      <trkpt lat="42.42587" lon="0.02959">
        <ele>1111.1</ele>
        <time>2016-07-31T08:32:37Z</time>
      </trkpt>
      <trkpt lat="42.4259" lon="0.02967">
        <ele>1110.3</ele>
        <time>2016-07-31T08:32:38Z</time>
      </trkpt>
      <trkpt lat="42.42593" lon="0.02976">
        <ele>1109.6</ele>
        <time>2016-07-31T08:32:39Z</time>
      </trkpt>
      <trkpt lat="42.42596" lon="0.02983">
        <ele>1108.8</ele>
        <time>2016-07-31T08:32:40Z</time>
      </trkpt>
      <trkpt lat="42.42599" lon="0.02992">
        <ele>1108.1</ele>
        <time>2016-07-31T08:32:41Z</time>
      </trkpt>
      <trkpt lat="42.42602" lon="0.03">
        <ele>1107.5</ele>
        <time>2016-07-31T08:32:42Z</time>
      </trkpt>
      <trkpt lat="42.42604" lon="0.03008">
        <ele>1106.9</ele>
        <time>2016-07-31T08:32:43Z</time>
      </trkpt>
      <trkpt lat="42.42607" lon="0.03015">
        <ele>1106.3</ele>
        <time>2016-07-31T08:32:44Z</time>
      </trkpt>
      <trkpt lat="42.4261" lon="0.03024">
        <ele>1105.7</ele>
        <time>2016-07-31T08:32:45Z</time>
      </trkpt>
      <trkpt lat="42.42613" lon="0.03031">
        <ele>1105.1</ele>
        <time>2016-07-31T08:32:46Z</time>
      </trkpt>
      <trkpt lat="42.42616" lon="0.03039">
        <ele>1104.6</ele>
        <time>2016-07-31T08:32:47Z</time>
      </trkpt>
      <trkpt lat="42.42618" lon="0.03047">
        <ele>1104</ele>
        <time>2016-07-31T08:32:48Z</time>
      </trkpt>
      <trkpt lat="42.4262" lon="0.03055">
        <ele>1103.3</ele>
        <time>2016-07-31T08:32:49Z</time>
      </trkpt>
      <trkpt lat="42.42621" lon="0.03062">
        <ele>1102.7</ele>
        <time>2016-07-31T08:32:50Z</time>
      </trkpt>
      <trkpt lat="42.42623" lon="0.03069">
        <ele>1102.1</ele>
        <time>2016-07-31T08:32:51Z</time>
      </trkpt>
      <trkpt lat="42.42625" lon="0.03076">
        <ele>1101.5</ele>
        <time>2016-07-31T08:32:52Z</time>
      </trkpt>
      <trkpt lat="42.42627" lon="0.03083">
        <ele>1100.9</ele>
        <time>2016-07-31T08:32:53Z</time>
      </trkpt>
      <trkpt lat="42.42629" lon="0.0309">
        <ele>1100.3</ele>
        <time>2016-07-31T08:32:54Z</time>
      </trkpt>
      <trkpt lat="42.42631" lon="0.03097">
        <ele>1099.8</ele>
        <time>2016-07-31T08:32:55Z</time>
      </trkpt>
      <trkpt lat="42.42633" lon="0.03103">
        <ele>1099.4</ele>
        <time>2016-07-31T08:32:56Z</time>
      </trkpt>
      <trkpt lat="42.42635" lon="0.0311">
        <ele>1099</ele>
        <time>2016-07-31T08:32:57Z</time>
      </trkpt>
      <trkpt lat="42.42637" lon="0.03116">
        <ele>1098.6</ele>
        <time>2016-07-31T08:32:58Z</time>
      </trkpt>
      <trkpt lat="42.42639" lon="0.03122">
        <ele>1098.3</ele>
        <time>2016-07-31T08:32:59Z</time>
      </trkpt>
      <trkpt lat="42.42641" lon="0.03128">
        <ele>1097.9</ele>
        <time>2016-07-31T08:33:00Z</time>
      </trkpt>
      <trkpt lat="42.42644" lon="0.03135">
        <ele>1097.5</ele>
        <time>2016-07-31T08:33:01Z</time>
      </trkpt>
      <trkpt lat="42.42646" lon="0.03141">
        <ele>1097</ele>
        <time>2016-07-31T08:33:02Z</time>
      </trkpt>
      <trkpt lat="42.42648" lon="0.03147">
        <ele>1096.7</ele>
        <time>2016-07-31T08:33:03Z</time>
      </trkpt>
      <trkpt lat="42.42651" lon="0.03153">
        <ele>1096.4</ele>
        <time>2016-07-31T08:33:04Z</time>
      </trkpt>
      <trkpt lat="42.42653" lon="0.03158">
        <ele>1096.1</ele>
        <time>2016-07-31T08:33:05Z</time>
      </trkpt>
      <trkpt lat="42.42655" lon="0.03164">
        <ele>1095.8</ele>
        <time>2016-07-31T08:33:06Z</time>
      </trkpt>
      <trkpt lat="42.42657" lon="0.03169">
        <ele>1095.6</ele>
        <time>2016-07-31T08:33:07Z</time>
      </trkpt>
      <trkpt lat="42.4266" lon="0.03174">
        <ele>1095.5</ele>
        <time>2016-07-31T08:33:08Z</time>
      </trkpt>
      <trkpt lat="42.42664" lon="0.03176">
        <ele>1095.6</ele>
        <time>2016-07-31T08:33:09Z</time>
      </trkpt>
      <trkpt lat="42.42669" lon="0.03178">
        <ele>1095.8</ele>
        <time>2016-07-31T08:33:10Z</time>
      </trkpt>
      <trkpt lat="42.42674" lon="0.03179">
        <ele>1096</ele>
        <time>2016-07-31T08:33:11Z</time>
      </trkpt>
      <trkpt lat="42.42678" lon="0.03181">
        <ele>1096.2</ele>
        <time>2016-07-31T08:33:12Z</time>
      </trkpt>
      <trkpt lat="42.42682" lon="0.03184">
        <ele>1096.4</ele>
        <time>2016-07-31T08:33:13Z</time>
      </trkpt>
      <trkpt lat="42.42687" lon="0.03185">
        <ele>1096.7</ele>
        <time>2016-07-31T08:33:14Z</time>
      </trkpt>
      <trkpt lat="42.42691" lon="0.03187">
        <ele>1096.9</ele>
        <time>2016-07-31T08:33:15Z</time>
      </trkpt>
      <trkpt lat="42.42695" lon="0.03189">
        <ele>1097.2</ele>
        <time>2016-07-31T08:33:16Z</time>
      </trkpt>
      <trkpt lat="42.427" lon="0.03191">
        <ele>1097.5</ele>
        <time>2016-07-31T08:33:17Z</time>
      </trkpt>
      <trkpt lat="42.42704" lon="0.03193">
        <ele>1097.9</ele>
        <time>2016-07-31T08:33:18Z</time>
      </trkpt>
      <trkpt lat="42.42709" lon="0.03196">
        <ele>1098.1</ele>
        <time>2016-07-31T08:33:19Z</time>
      </trkpt>
      <trkpt lat="42.42713" lon="0.03198">
        <ele>1097.8</ele>
        <time>2016-07-31T08:33:20Z</time>
      </trkpt>
      <trkpt lat="42.42717" lon="0.03202">
        <ele>1097.5</ele>
        <time>2016-07-31T08:33:21Z</time>
      </trkpt>
      <trkpt lat="42.42721" lon="0.03206">
        <ele>1097.4</ele>
        <time>2016-07-31T08:33:22Z</time>
      </trkpt>
      <trkpt lat="42.42725" lon="0.0321">
        <ele>1097</ele>
        <time>2016-07-31T08:33:23Z</time>
      </trkpt>
      <trkpt lat="42.42729" lon="0.03215">
        <ele>1096.4</ele>
        <time>2016-07-31T08:33:24Z</time>
      </trkpt>
      <trkpt lat="42.42734" lon="0.03219">
        <ele>1095.8</ele>
        <time>2016-07-31T08:33:25Z</time>
      </trkpt>
      <trkpt lat="42.42738" lon="0.03224">
        <ele>1095.2</ele>
        <time>2016-07-31T08:33:26Z</time>
      </trkpt>
      <trkpt lat="42.42743" lon="0.03229">
        <ele>1094.6</ele>
        <time>2016-07-31T08:33:27Z</time>
      </trkpt>
      <trkpt lat="42.42748" lon="0.03234">
        <ele>1093.9</ele>
        <time>2016-07-31T08:33:28Z</time>
      </trkpt>
      <trkpt lat="42.42752" lon="0.03239">
        <ele>1093.3</ele>
        <time>2016-07-31T08:33:29Z</time>
      </trkpt>
      <trkpt lat="42.42757" lon="0.03243">
        <ele>1092.8</ele>
        <time>2016-07-31T08:33:30Z</time>
      </trkpt>
      <trkpt lat="42.42761" lon="0.03246">
        <ele>1092.4</ele>
        <time>2016-07-31T08:33:31Z</time>
      </trkpt>
      <trkpt lat="42.42765" lon="0.03248">
        <ele>1092.2</ele>
        <time>2016-07-31T08:33:32Z</time>
      </trkpt>
      <trkpt lat="42.42768" lon="0.03248">
        <ele>1092</ele>
        <time>2016-07-31T08:33:33Z</time>
      </trkpt>
      <trkpt lat="42.42772" lon="0.03248">
        <ele>1091.9</ele>
        <time>2016-07-31T08:33:34Z</time>
      </trkpt>
      <trkpt lat="42.42775" lon="0.03248">
        <ele>1091.8</ele>
        <time>2016-07-31T08:33:35Z</time>
      </trkpt>
      <trkpt lat="42.42778" lon="0.03253">
        <ele>1091.3</ele>
        <time>2016-07-31T08:33:37Z</time>
      </trkpt>
      <trkpt lat="42.42779" lon="0.03258">
        <ele>1090.9</ele>
        <time>2016-07-31T08:33:38Z</time>
      </trkpt>
      <trkpt lat="42.4278" lon="0.03263">
        <ele>1090.4</ele>
        <time>2016-07-31T08:33:39Z</time>
      </trkpt>
      <trkpt lat="42.42781" lon="0.03268">
        <ele>1090</ele>
        <time>2016-07-31T08:33:40Z</time>
      </trkpt>
      <trkpt lat="42.42782" lon="0.03273">
        <ele>1089.7</ele>
        <time>2016-07-31T08:33:41Z</time>
      </trkpt>
      <trkpt lat="42.42783" lon="0.03276">
        <ele>1089.4</ele>
        <time>2016-07-31T08:33:42Z</time>
      </trkpt>
      <trkpt lat="42.42785" lon="0.03279">
        <ele>1089.1</ele>
        <time>2016-07-31T08:33:43Z</time>
      </trkpt>
      <trkpt lat="42.42788" lon="0.03281">
        <ele>1088.9</ele>
        <time>2016-07-31T08:33:44Z</time>
      </trkpt>
      <trkpt lat="42.4279" lon="0.03284">
        <ele>1088.6</ele>
        <time>2016-07-31T08:33:45Z</time>
      </trkpt>
      <trkpt lat="42.42791" lon="0.03291">
        <ele>1088.1</ele>
        <time>2016-07-31T08:33:47Z</time>
      </trkpt>
      <trkpt lat="42.4279" lon="0.03297">
        <ele>1087.4</ele>
        <time>2016-07-31T08:33:49Z</time>
      </trkpt>
      <trkpt lat="42.4279" lon="0.03303">
        <ele>1086.6</ele>
        <time>2016-07-31T08:33:51Z</time>
      </trkpt>
      <trkpt lat="42.42791" lon="0.03308">
        <ele>1086</ele>
        <time>2016-07-31T08:33:53Z</time>
      </trkpt>
      <trkpt lat="42.42791" lon="0.03317">
        <ele>1085</ele>
        <time>2016-07-31T08:35:55Z</time>
      </trkpt>
      <trkpt lat="42.42791" lon="0.03323">
        <ele>1084.3</ele>
        <time>2016-07-31T08:35:57Z</time>
      </trkpt>
      <trkpt lat="42.42791" lon="0.0333">
        <ele>1083.5</ele>
        <time>2016-07-31T08:35:59Z</time>
      </trkpt>
      <trkpt lat="42.42794" lon="0.03335">
        <ele>1082.7</ele>
        <time>2016-07-31T08:36:01Z</time>
      </trkpt>
      <trkpt lat="42.42796" lon="0.03338">
        <ele>1082.3</ele>
        <time>2016-07-31T08:36:02Z</time>
      </trkpt>
      <trkpt lat="42.42798" lon="0.0334">
        <ele>1081.9</ele>
        <time>2016-07-31T08:36:03Z</time>
      </trkpt>
      <trkpt lat="42.428" lon="0.03343">
        <ele>1081.5</ele>
        <time>2016-07-31T08:36:04Z</time>
      </trkpt>
      <trkpt lat="42.42802" lon="0.03349">
        <ele>1080.6</ele>
        <time>2016-07-31T08:36:06Z</time>
      </trkpt>
      <trkpt lat="42.42806" lon="0.03354">
        <ele>1080</ele>
        <time>2016-07-31T08:36:08Z</time>
      </trkpt>
      <trkpt lat="42.42809" lon="0.03355">
        <ele>1079.7</ele>
        <time>2016-07-31T08:36:09Z</time>
      </trkpt>
      <trkpt lat="42.42812" lon="0.03356">
        <ele>1079.4</ele>
        <time>2016-07-31T08:36:10Z</time>
      </trkpt>
      <trkpt lat="42.42814" lon="0.03358">
        <ele>1079.1</ele>
        <time>2016-07-31T08:36:11Z</time>
      </trkpt>
      <trkpt lat="42.42817" lon="0.0336">
        <ele>1078.7</ele>
        <time>2016-07-31T08:36:12Z</time>
      </trkpt>
      <trkpt lat="42.4282" lon="0.03363">
        <ele>1078.3</ele>
        <time>2016-07-31T08:36:13Z</time>
      </trkpt>
      <trkpt lat="42.42823" lon="0.03366">
        <ele>1077.9</ele>
        <time>2016-07-31T08:36:14Z</time>
      </trkpt>
      <trkpt lat="42.42825" lon="0.03369">
        <ele>1077.4</ele>
        <time>2016-07-31T08:36:15Z</time>
      </trkpt>
      <trkpt lat="42.42828" lon="0.03372">
        <ele>1077</ele>
        <time>2016-07-31T08:36:16Z</time>
      </trkpt>
      <trkpt lat="42.42831" lon="0.03376">
        <ele>1076.5</ele>
        <time>2016-07-31T08:36:17Z</time>
      </trkpt>
      <trkpt lat="42.42833" lon="0.0338">
        <ele>1075.8</ele>
        <time>2016-07-31T08:36:18Z</time>
      </trkpt>
      <trkpt lat="42.42835" lon="0.03384">
        <ele>1075</ele>
        <time>2016-07-31T08:36:19Z</time>
      </trkpt>
      <trkpt lat="42.42837" lon="0.03389">
        <ele>1074.2</ele>
        <time>2016-07-31T08:36:20Z</time>
      </trkpt>
      <trkpt lat="42.42838" lon="0.03394">
        <ele>1073.4</ele>
        <time>2016-07-31T08:36:21Z</time>
      </trkpt>
      <trkpt lat="42.4284" lon="0.03399">
        <ele>1072.7</ele>
        <time>2016-07-31T08:36:22Z</time>
      </trkpt>
      <trkpt lat="42.42841" lon="0.03403">
        <ele>1072.1</ele>
        <time>2016-07-31T08:36:23Z</time>
      </trkpt>
      <trkpt lat="42.42843" lon="0.03408">
        <ele>1071.4</ele>
        <time>2016-07-31T08:36:24Z</time>
      </trkpt>
      <trkpt lat="42.42845" lon="0.03413">
        <ele>1070.7</ele>
        <time>2016-07-31T08:36:25Z</time>
      </trkpt>
      <trkpt lat="42.42847" lon="0.03418">
        <ele>1070</ele>
        <time>2016-07-31T08:36:26Z</time>
      </trkpt>
      <trkpt lat="42.42848" lon="0.03421">
        <ele>1069.5</ele>
        <time>2016-07-31T08:36:27Z</time>
      </trkpt>
      <trkpt lat="42.4285" lon="0.03424">
        <ele>1069.2</ele>
        <time>2016-07-31T08:36:28Z</time>
      </trkpt>
      <trkpt lat="42.42852" lon="0.03427">
        <ele>1068.8</ele>
        <time>2016-07-31T08:36:29Z</time>
      </trkpt>
      <trkpt lat="42.42854" lon="0.03431">
        <ele>1068.4</ele>
        <time>2016-07-31T08:36:30Z</time>
      </trkpt>
      <trkpt lat="42.42856" lon="0.03434">
        <ele>1068</ele>
        <time>2016-07-31T08:36:31Z</time>
      </trkpt>
      <trkpt lat="42.42859" lon="0.03439">
        <ele>1067.4</ele>
        <time>2016-07-31T08:36:33Z</time>
      </trkpt>
      <trkpt lat="42.42859" lon="0.03445">
        <ele>1066.7</ele>
        <time>2016-07-31T08:36:35Z</time>
      </trkpt>
      <trkpt lat="42.42861" lon="0.03451">
        <ele>1066.1</ele>
        <time>2016-07-31T08:36:37Z</time>
      </trkpt>
      <trkpt lat="42.42863" lon="0.03457">
        <ele>1065.4</ele>
        <time>2016-07-31T08:36:39Z</time>
      </trkpt>
      <trkpt lat="42.42866" lon="0.03463">
        <ele>1065</ele>
        <time>2016-07-31T08:36:41Z</time>
      </trkpt>
      <trkpt lat="42.42869" lon="0.03468">
        <ele>1064.6</ele>
        <time>2016-07-31T08:36:43Z</time>
      </trkpt>
      <trkpt lat="42.42871" lon="0.03471">
        <ele>1064.4</ele>
        <time>2016-07-31T08:36:44Z</time>
      </trkpt>
      <trkpt lat="42.42872" lon="0.03475">
        <ele>1064.2</ele>
        <time>2016-07-31T08:36:45Z</time>
      </trkpt>
      <trkpt lat="42.42875" lon="0.03481">
        <ele>1063.8</ele>
        <time>2016-07-31T08:36:47Z</time>
      </trkpt>
      <trkpt lat="42.42876" lon="0.03485">
        <ele>1063.3</ele>
        <time>2016-07-31T08:36:48Z</time>
      </trkpt>
      <trkpt lat="42.42876" lon="0.03489">
        <ele>1062.9</ele>
        <time>2016-07-31T08:36:49Z</time>
      </trkpt>
      <trkpt lat="42.42875" lon="0.03494">
        <ele>1062.6</ele>
        <time>2016-07-31T08:36:50Z</time>
      </trkpt>
      <trkpt lat="42.42874" lon="0.03498">
        <ele>1062.1</ele>
        <time>2016-07-31T08:36:51Z</time>
      </trkpt>
      <trkpt lat="42.42873" lon="0.03502">
        <ele>1061.6</ele>
        <time>2016-07-31T08:36:52Z</time>
      </trkpt>
      <trkpt lat="42.42873" lon="0.03506">
        <ele>1061.3</ele>
        <time>2016-07-31T08:36:53Z</time>
      </trkpt>
      <trkpt lat="42.42875" lon="0.0351">
        <ele>1061</ele>
        <time>2016-07-31T08:36:54Z</time>
      </trkpt>
      <trkpt lat="42.42876" lon="0.03514">
        <ele>1060.5</ele>
        <time>2016-07-31T08:36:55Z</time>
      </trkpt>
      <trkpt lat="42.42877" lon="0.03519">
        <ele>1059.9</ele>
        <time>2016-07-31T08:36:56Z</time>
      </trkpt>
      <trkpt lat="42.42876" lon="0.03524">
        <ele>1059.5</ele>
        <time>2016-07-31T08:36:57Z</time>
      </trkpt>
      <trkpt lat="42.42875" lon="0.03529">
        <ele>1059.2</ele>
        <time>2016-07-31T08:36:58Z</time>
      </trkpt>
      <trkpt lat="42.42874" lon="0.03534">
        <ele>1058.6</ele>
        <time>2016-07-31T08:36:59Z</time>
      </trkpt>
      <trkpt lat="42.42872" lon="0.03539">
        <ele>1057.9</ele>
        <time>2016-07-31T08:37:00Z</time>
      </trkpt>
      <trkpt lat="42.42871" lon="0.03544">
        <ele>1057.2</ele>
        <time>2016-07-31T08:37:01Z</time>
      </trkpt>
      <trkpt lat="42.42869" lon="0.03549">
        <ele>1056.6</ele>
        <time>2016-07-31T08:37:02Z</time>
      </trkpt>
      <trkpt lat="42.42868" lon="0.03554">
        <ele>1056.2</ele>
        <time>2016-07-31T08:37:03Z</time>
      </trkpt>
      <trkpt lat="42.42869" lon="0.03559">
        <ele>1055.8</ele>
        <time>2016-07-31T08:37:04Z</time>
      </trkpt>
      <trkpt lat="42.4287" lon="0.03564">
        <ele>1055.7</ele>
        <time>2016-07-31T08:37:05Z</time>
      </trkpt>
      <trkpt lat="42.42873" lon="0.03569">
        <ele>1055.7</ele>
        <time>2016-07-31T08:37:06Z</time>
      </trkpt>
      <trkpt lat="42.42876" lon="0.03575">
        <ele>1055.6</ele>
        <time>2016-07-31T08:37:07Z</time>
      </trkpt>
      <trkpt lat="42.42879" lon="0.0358">
        <ele>1054.9</ele>
        <time>2016-07-31T08:37:08Z</time>
      </trkpt>
      <trkpt lat="42.42882" lon="0.03585">
        <ele>1054.2</ele>
        <time>2016-07-31T08:37:09Z</time>
      </trkpt>
      <trkpt lat="42.42885" lon="0.03591">
        <ele>1053.6</ele>
        <time>2016-07-31T08:37:10Z</time>
      </trkpt>
      <trkpt lat="42.42888" lon="0.03596">
        <ele>1053</ele>
        <time>2016-07-31T08:37:11Z</time>
      </trkpt>
      <trkpt lat="42.42892" lon="0.03602">
        <ele>1052.5</ele>
        <time>2016-07-31T08:37:12Z</time>
      </trkpt>
      <trkpt lat="42.42895" lon="0.03608">
        <ele>1051.9</ele>
        <time>2016-07-31T08:37:13Z</time>
      </trkpt>
      <trkpt lat="42.42898" lon="0.03614">
        <ele>1051.4</ele>
        <time>2016-07-31T08:37:14Z</time>
      </trkpt>
      <trkpt lat="42.42902" lon="0.03619">
        <ele>1051</ele>
        <time>2016-07-31T08:37:15Z</time>
      </trkpt>
      <trkpt lat="42.42905" lon="0.03625">
        <ele>1050.6</ele>
        <time>2016-07-31T08:37:16Z</time>
      </trkpt>
      <trkpt lat="42.42908" lon="0.03631">
        <ele>1050.1</ele>
        <time>2016-07-31T08:37:17Z</time>
      </trkpt>
      <trkpt lat="42.42911" lon="0.03636">
        <ele>1049.6</ele>
        <time>2016-07-31T08:37:18Z</time>
      </trkpt>
      <trkpt lat="42.42914" lon="0.03642">
        <ele>1049.2</ele>
        <time>2016-07-31T08:37:19Z</time>
      </trkpt>
      <trkpt lat="42.42917" lon="0.03648">
        <ele>1048.8</ele>
        <time>2016-07-31T08:37:20Z</time>
      </trkpt>
      <trkpt lat="42.4292" lon="0.03652">
        <ele>1048.4</ele>
        <time>2016-07-31T08:37:21Z</time>
      </trkpt>
      <trkpt lat="42.42921" lon="0.03656">
        <ele>1048.2</ele>
        <time>2016-07-31T08:37:22Z</time>
      </trkpt>
      <trkpt lat="42.42923" lon="0.03659">
        <ele>1047.9</ele>
        <time>2016-07-31T08:37:24Z</time>
      </trkpt>
      <trkpt lat="42.42926" lon="0.03661">
        <ele>1047.7</ele>
        <time>2016-07-31T08:37:27Z</time>
      </trkpt>
      <trkpt lat="42.42929" lon="0.03663">
        <ele>1047.6</ele>
        <time>2016-07-31T08:37:29Z</time>
      </trkpt>
      <trkpt lat="42.42931" lon="0.03667">
        <ele>1047.3</ele>
        <time>2016-07-31T08:37:31Z</time>
      </trkpt>
      <trkpt lat="42.42933" lon="0.0367">
        <ele>1047.1</ele>
        <time>2016-07-31T08:37:33Z</time>
      </trkpt>
      <trkpt lat="42.42936" lon="0.03674">
        <ele>1046.8</ele>
        <time>2016-07-31T08:37:35Z</time>
      </trkpt>
      <trkpt lat="42.42939" lon="0.03677">
        <ele>1046.7</ele>
        <time>2016-07-31T08:37:36Z</time>
      </trkpt>
      <trkpt lat="42.42941" lon="0.03679">
        <ele>1046.5</ele>
        <time>2016-07-31T08:37:37Z</time>
      </trkpt>
      <trkpt lat="42.42943" lon="0.03682">
        <ele>1046.3</ele>
        <time>2016-07-31T08:37:38Z</time>
      </trkpt>
      <trkpt lat="42.42946" lon="0.03687">
        <ele>1046</ele>
        <time>2016-07-31T08:37:40Z</time>
      </trkpt>
      <trkpt lat="42.42947" lon="0.03691">
        <ele>1045.9</ele>
        <time>2016-07-31T08:37:41Z</time>
      </trkpt>
      <trkpt lat="42.42948" lon="0.03694">
        <ele>1045.7</ele>
        <time>2016-07-31T08:37:42Z</time>
      </trkpt>
      <trkpt lat="42.42948" lon="0.03698">
        <ele>1045.5</ele>
        <time>2016-07-31T08:37:43Z</time>
      </trkpt>
      <trkpt lat="42.42948" lon="0.03702">
        <ele>1045.4</ele>
        <time>2016-07-31T08:37:44Z</time>
      </trkpt>
      <trkpt lat="42.42947" lon="0.03706">
        <ele>1045.2</ele>
        <time>2016-07-31T08:37:45Z</time>
      </trkpt>
      <trkpt lat="42.42945" lon="0.03712">
        <ele>1044.9</ele>
        <time>2016-07-31T08:37:47Z</time>
      </trkpt>
      <trkpt lat="42.42943" lon="0.03715">
        <ele>1044.8</ele>
        <time>2016-07-31T08:37:48Z</time>
      </trkpt>
      <trkpt lat="42.42939" lon="0.03719">
        <ele>1044.6</ele>
        <time>2016-07-31T08:37:50Z</time>
      </trkpt>
      <trkpt lat="42.42937" lon="0.03722">
        <ele>1044.5</ele>
        <time>2016-07-31T08:37:51Z</time>
      </trkpt>
      <trkpt lat="42.42935" lon="0.03725">
        <ele>1044.2</ele>
        <time>2016-07-31T08:37:52Z</time>
      </trkpt>
      <trkpt lat="42.42933" lon="0.0373">
        <ele>1044</ele>
        <time>2016-07-31T08:37:53Z</time>
      </trkpt>
      <trkpt lat="42.42931" lon="0.03734">
        <ele>1043.7</ele>
        <time>2016-07-31T08:37:54Z</time>
      </trkpt>
      <trkpt lat="42.42929" lon="0.0374">
        <ele>1043.3</ele>
        <time>2016-07-31T08:37:55Z</time>
      </trkpt>
      <trkpt lat="42.42926" lon="0.03745">
        <ele>1043</ele>
        <time>2016-07-31T08:37:56Z</time>
      </trkpt>
      <trkpt lat="42.42923" lon="0.03749">
        <ele>1042.6</ele>
        <time>2016-07-31T08:37:57Z</time>
      </trkpt>
      <trkpt lat="42.42921" lon="0.03752">
        <ele>1042.4</ele>
        <time>2016-07-31T08:37:58Z</time>
      </trkpt>
      <trkpt lat="42.42918" lon="0.03756">
        <ele>1042.1</ele>
        <time>2016-07-31T08:38:00Z</time>
      </trkpt>
      <trkpt lat="42.42918" lon="0.03762">
        <ele>1041.7</ele>
        <time>2016-07-31T08:38:02Z</time>
      </trkpt>
      <trkpt lat="42.42917" lon="0.03768">
        <ele>1041.2</ele>
        <time>2016-07-31T08:38:03Z</time>
      </trkpt>
      <trkpt lat="42.42915" lon="0.03774">
        <ele>1040.7</ele>
        <time>2016-07-31T08:38:04Z</time>
      </trkpt>
      <trkpt lat="42.42913" lon="0.03781">
        <ele>1040.1</ele>
        <time>2016-07-31T08:38:05Z</time>
      </trkpt>
      <trkpt lat="42.42911" lon="0.03788">
        <ele>1039.5</ele>
        <time>2016-07-31T08:38:06Z</time>
      </trkpt>
      <trkpt lat="42.42908" lon="0.03795">
        <ele>1038.9</ele>
        <time>2016-07-31T08:38:07Z</time>
      </trkpt>
      <trkpt lat="42.42907" lon="0.03801">
        <ele>1038.4</ele>
        <time>2016-07-31T08:38:08Z</time>
      </trkpt>
      <trkpt lat="42.42907" lon="0.03806">
        <ele>1037.9</ele>
        <time>2016-07-31T08:38:09Z</time>
      </trkpt>
      <trkpt lat="42.42909" lon="0.0381">
        <ele>1037.6</ele>
        <time>2016-07-31T08:38:10Z</time>
      </trkpt>
      <trkpt lat="42.42912" lon="0.03815">
        <ele>1037.3</ele>
        <time>2016-07-31T08:38:11Z</time>
      </trkpt>
      <trkpt lat="42.42914" lon="0.03819">
        <ele>1037.1</ele>
        <time>2016-07-31T08:38:12Z</time>
      </trkpt>
      <trkpt lat="42.42917" lon="0.03825">
        <ele>1036.7</ele>
        <time>2016-07-31T08:38:13Z</time>
      </trkpt>
      <trkpt lat="42.4292" lon="0.03831">
        <ele>1036.4</ele>
        <time>2016-07-31T08:38:14Z</time>
      </trkpt>
      <trkpt lat="42.42921" lon="0.03838">
        <ele>1035.9</ele>
        <time>2016-07-31T08:38:15Z</time>
      </trkpt>
      <trkpt lat="42.42922" lon="0.03845">
        <ele>1035.4</ele>
        <time>2016-07-31T08:38:16Z</time>
      </trkpt>
      <trkpt lat="42.42923" lon="0.03852">
        <ele>1034.8</ele>
        <time>2016-07-31T08:38:17Z</time>
      </trkpt>
      <trkpt lat="42.42923" lon="0.0386">
        <ele>1034.2</ele>
        <time>2016-07-31T08:38:18Z</time>
      </trkpt>
      <trkpt lat="42.42922" lon="0.03867">
        <ele>1033.6</ele>
        <time>2016-07-31T08:38:19Z</time>
      </trkpt>
      <trkpt lat="42.42922" lon="0.03874">
        <ele>1033</ele>
        <time>2016-07-31T08:38:20Z</time>
      </trkpt>
      <trkpt lat="42.42923" lon="0.03881">
        <ele>1033.9</ele>
        <time>2016-07-31T08:38:21Z</time>
      </trkpt>
      <trkpt lat="42.42926" lon="0.03887">
        <ele>1034.9</ele>
        <time>2016-07-31T08:38:22Z</time>
      </trkpt>
      <trkpt lat="42.42929" lon="0.03893">
        <ele>1035.9</ele>
        <time>2016-07-31T08:38:23Z</time>
      </trkpt>
      <trkpt lat="42.42933" lon="0.03897">
        <ele>1036.9</ele>
        <time>2016-07-31T08:38:24Z</time>
      </trkpt>
      <trkpt lat="42.42937" lon="0.03902">
        <ele>1037.8</ele>
        <time>2016-07-31T08:38:25Z</time>
      </trkpt>
      <trkpt lat="42.42941" lon="0.03906">
        <ele>1038.8</ele>
        <time>2016-07-31T08:38:26Z</time>
      </trkpt>
      <trkpt lat="42.42945" lon="0.03911">
        <ele>1039.8</ele>
        <time>2016-07-31T08:38:27Z</time>
      </trkpt>
      <trkpt lat="42.42948" lon="0.03916">
        <ele>1040.8</ele>
        <time>2016-07-31T08:38:28Z</time>
      </trkpt>
      <trkpt lat="42.42952" lon="0.03921">
        <ele>1041.9</ele>
        <time>2016-07-31T08:38:29Z</time>
      </trkpt>
      <trkpt lat="42.42955" lon="0.03927">
        <ele>1043</ele>
        <time>2016-07-31T08:38:30Z</time>
      </trkpt>
      <trkpt lat="42.42958" lon="0.03932">
        <ele>1044.1</ele>
        <time>2016-07-31T08:38:31Z</time>
      </trkpt>
      <trkpt lat="42.42961" lon="0.03937">
        <ele>1044.1</ele>
        <time>2016-07-31T08:38:32Z</time>
      </trkpt>
      <trkpt lat="42.42964" lon="0.03942">
        <ele>1043.9</ele>
        <time>2016-07-31T08:38:33Z</time>
      </trkpt>
      <trkpt lat="42.42967" lon="0.03946">
        <ele>1043.5</ele>
        <time>2016-07-31T08:38:34Z</time>
      </trkpt>
      <trkpt lat="42.4297" lon="0.03951">
        <ele>1043.2</ele>
        <time>2016-07-31T08:38:35Z</time>
      </trkpt>
      <trkpt lat="42.42973" lon="0.03955">
        <ele>1042.8</ele>
        <time>2016-07-31T08:38:36Z</time>
      </trkpt>
      <trkpt lat="42.42976" lon="0.03958">
        <ele>1042.4</ele>
        <time>2016-07-31T08:38:37Z</time>
      </trkpt>
      <trkpt lat="42.42978" lon="0.03961">
        <ele>1042.2</ele>
        <time>2016-07-31T08:38:38Z</time>
      </trkpt>
      <trkpt lat="42.42981" lon="0.03964">
        <ele>1041.8</ele>
        <time>2016-07-31T08:38:40Z</time>
      </trkpt>
      <trkpt lat="42.42984" lon="0.03965">
        <ele>1041.2</ele>
        <time>2016-07-31T08:38:42Z</time>
      </trkpt>
      <trkpt lat="42.42986" lon="0.03966">
        <ele>1040.5</ele>
        <time>2016-07-31T08:38:44Z</time>
      </trkpt>
      <trkpt lat="42.42991" lon="0.03968">
        <ele>1039.6</ele>
        <time>2016-07-31T08:38:46Z</time>
      </trkpt>
      <trkpt lat="42.42993" lon="0.03969">
        <ele>1039</ele>
        <time>2016-07-31T08:38:47Z</time>
      </trkpt>
      <trkpt lat="42.42998" lon="0.0397">
        <ele>1037.6</ele>
        <time>2016-07-31T08:38:49Z</time>
      </trkpt>
      <trkpt lat="42.43001" lon="0.03971">
        <ele>1036.7</ele>
        <time>2016-07-31T08:38:50Z</time>
      </trkpt>
      <trkpt lat="42.43005" lon="0.03972">
        <ele>1035.8</ele>
        <time>2016-07-31T08:38:51Z</time>
      </trkpt>
      <trkpt lat="42.43008" lon="0.03974">
        <ele>1035.2</ele>
        <time>2016-07-31T08:38:52Z</time>
      </trkpt>
      <trkpt lat="42.43011" lon="0.03976">
        <ele>1034.7</ele>
        <time>2016-07-31T08:38:53Z</time>
      </trkpt>
      <trkpt lat="42.43015" lon="0.03979">
        <ele>1034.2</ele>
        <time>2016-07-31T08:38:54Z</time>
      </trkpt>
      <trkpt lat="42.43018" lon="0.03983">
        <ele>1033.9</ele>
        <time>2016-07-31T08:38:55Z</time>
      </trkpt>
      <trkpt lat="42.43022" lon="0.03987">
        <ele>1033.4</ele>
        <time>2016-07-31T08:38:56Z</time>
      </trkpt>
      <trkpt lat="42.43026" lon="0.03991">
        <ele>1033</ele>
        <time>2016-07-31T08:38:57Z</time>
      </trkpt>
      <trkpt lat="42.43029" lon="0.03995">
        <ele>1032.8</ele>
        <time>2016-07-31T08:38:58Z</time>
      </trkpt>
      <trkpt lat="42.43032" lon="0.03999">
        <ele>1032.9</ele>
        <time>2016-07-31T08:38:59Z</time>
      </trkpt>
      <trkpt lat="42.43034" lon="0.04004">
        <ele>1033.2</ele>
        <time>2016-07-31T08:39:00Z</time>
      </trkpt>
      <trkpt lat="42.43036" lon="0.04007">
        <ele>1033.4</ele>
        <time>2016-07-31T08:39:01Z</time>
      </trkpt>
      <trkpt lat="42.4304" lon="0.04012">
        <ele>1032.9</ele>
        <time>2016-07-31T08:39:03Z</time>
      </trkpt>
      <trkpt lat="42.43045" lon="0.04015">
        <ele>1032</ele>
        <time>2016-07-31T08:39:05Z</time>
      </trkpt>
      <trkpt lat="42.43049" lon="0.04017">
        <ele>1031.3</ele>
        <time>2016-07-31T08:39:06Z</time>
      </trkpt>
      <trkpt lat="42.43053" lon="0.0402">
        <ele>1030.6</ele>
        <time>2016-07-31T08:39:07Z</time>
      </trkpt>
      <trkpt lat="42.43056" lon="0.04023">
        <ele>1030</ele>
        <time>2016-07-31T08:39:08Z</time>
      </trkpt>
      <trkpt lat="42.4306" lon="0.04028">
        <ele>1029.5</ele>
        <time>2016-07-31T08:39:09Z</time>
      </trkpt>
      <trkpt lat="42.43064" lon="0.04032">
        <ele>1029.2</ele>
        <time>2016-07-31T08:39:10Z</time>
      </trkpt>
      <trkpt lat="42.43066" lon="0.04036">
        <ele>1029.1</ele>
        <time>2016-07-31T08:39:11Z</time>
      </trkpt>
      <trkpt lat="42.43068" lon="0.04039">
        <ele>1029</ele>
        <time>2016-07-31T08:39:12Z</time>
      </trkpt>
      <trkpt lat="42.43071" lon="0.04044">
        <ele>1028.9</ele>
        <time>2016-07-31T08:39:14Z</time>
      </trkpt>
      <trkpt lat="42.43076" lon="0.04049">
        <ele>1028.7</ele>
        <time>2016-07-31T08:39:16Z</time>
      </trkpt>
      <trkpt lat="42.43078" lon="0.04053">
        <ele>1028.6</ele>
        <time>2016-07-31T08:39:17Z</time>
      </trkpt>
      <trkpt lat="42.43081" lon="0.04058">
        <ele>1028.9</ele>
        <time>2016-07-31T08:39:18Z</time>
      </trkpt>
      <trkpt lat="42.43083" lon="0.04063">
        <ele>1029.3</ele>
        <time>2016-07-31T08:39:19Z</time>
      </trkpt>
      <trkpt lat="42.43085" lon="0.04067">
        <ele>1029.5</ele>
        <time>2016-07-31T08:39:20Z</time>
      </trkpt>
      <trkpt lat="42.43088" lon="0.04072">
        <ele>1029.6</ele>
        <time>2016-07-31T08:39:21Z</time>
      </trkpt>
      <trkpt lat="42.43091" lon="0.04076">
        <ele>1029.6</ele>
        <time>2016-07-31T08:39:22Z</time>
      </trkpt>
      <trkpt lat="42.43094" lon="0.04082">
        <ele>1029.7</ele>
        <time>2016-07-31T08:39:23Z</time>
      </trkpt>
      <trkpt lat="42.43097" lon="0.04087">
        <ele>1029.9</ele>
        <time>2016-07-31T08:39:24Z</time>
      </trkpt>
      <trkpt lat="42.431" lon="0.04093">
        <ele>1030.1</ele>
        <time>2016-07-31T08:39:25Z</time>
      </trkpt>
      <trkpt lat="42.43103" lon="0.04099">
        <ele>1030.3</ele>
        <time>2016-07-31T08:39:26Z</time>
      </trkpt>
      <trkpt lat="42.43106" lon="0.04105">
        <ele>1030.6</ele>
        <time>2016-07-31T08:39:27Z</time>
      </trkpt>
      <trkpt lat="42.43109" lon="0.04111">
        <ele>1031</ele>
        <time>2016-07-31T08:39:28Z</time>
      </trkpt>
      <trkpt lat="42.43111" lon="0.04116">
        <ele>1031.3</ele>
        <time>2016-07-31T08:39:29Z</time>
      </trkpt>
      <trkpt lat="42.43114" lon="0.04122">
        <ele>1031.8</ele>
        <time>2016-07-31T08:39:30Z</time>
      </trkpt>
      <trkpt lat="42.43116" lon="0.04128">
        <ele>1032.2</ele>
        <time>2016-07-31T08:39:31Z</time>
      </trkpt>
      <trkpt lat="42.43117" lon="0.04133">
        <ele>1032.4</ele>
        <time>2016-07-31T08:39:32Z</time>
      </trkpt>
      <trkpt lat="42.4312" lon="0.04138">
        <ele>1032.3</ele>
        <time>2016-07-31T08:39:33Z</time>
      </trkpt>
      <trkpt lat="42.43123" lon="0.04142">
        <ele>1032.1</ele>
        <time>2016-07-31T08:39:34Z</time>
      </trkpt>
      <trkpt lat="42.43128" lon="0.04152">
        <ele>1031.6</ele>
        <time>2016-07-31T08:39:36Z</time>
      </trkpt>
      <trkpt lat="42.43131" lon="0.04156">
        <ele>1030.9</ele>
        <time>2016-07-31T08:39:37Z</time>
      </trkpt>
      <trkpt lat="42.43134" lon="0.0416">
        <ele>1030.1</ele>
        <time>2016-07-31T08:39:38Z</time>
      </trkpt>
      <trkpt lat="42.43138" lon="0.04164">
        <ele>1029.3</ele>
        <time>2016-07-31T08:39:39Z</time>
      </trkpt>
      <trkpt lat="42.43141" lon="0.04168">
        <ele>1028.5</ele>
        <time>2016-07-31T08:39:40Z</time>
      </trkpt>
      <trkpt lat="42.43143" lon="0.04172">
        <ele>1027.9</ele>
        <time>2016-07-31T08:39:41Z</time>
      </trkpt>
      <trkpt lat="42.43146" lon="0.04176">
        <ele>1027.3</ele>
        <time>2016-07-31T08:39:42Z</time>
      </trkpt>
      <trkpt lat="42.4315" lon="0.04179">
        <ele>1026.3</ele>
        <time>2016-07-31T08:39:43Z</time>
      </trkpt>
      <trkpt lat="42.43154" lon="0.04183">
        <ele>1025.2</ele>
        <time>2016-07-31T08:39:44Z</time>
      </trkpt>
      <trkpt lat="42.43157" lon="0.04185">
        <ele>1024.2</ele>
        <time>2016-07-31T08:39:45Z</time>
      </trkpt>
      <trkpt lat="42.43159" lon="0.04188">
        <ele>1023.4</ele>
        <time>2016-07-31T08:39:46Z</time>
      </trkpt>
      <trkpt lat="42.43162" lon="0.04191">
        <ele>1022.8</ele>
        <time>2016-07-31T08:39:47Z</time>
      </trkpt>
      <trkpt lat="42.43164" lon="0.04193">
        <ele>1022.1</ele>
        <time>2016-07-31T08:39:48Z</time>
      </trkpt>
      <trkpt lat="42.43167" lon="0.04197">
        <ele>1021.3</ele>
        <time>2016-07-31T08:39:49Z</time>
      </trkpt>
      <trkpt lat="42.4317" lon="0.042">
        <ele>1020.7</ele>
        <time>2016-07-31T08:39:50Z</time>
      </trkpt>
      <trkpt lat="42.43171" lon="0.04203">
        <ele>1020.3</ele>
        <time>2016-07-31T08:39:51Z</time>
      </trkpt>
      <trkpt lat="42.43173" lon="0.04206">
        <ele>1020.1</ele>
        <time>2016-07-31T08:39:52Z</time>
      </trkpt>
      <trkpt lat="42.43175" lon="0.04209">
        <ele>1019.6</ele>
        <time>2016-07-31T08:39:53Z</time>
      </trkpt>
      <trkpt lat="42.43178" lon="0.04212">
        <ele>1019.1</ele>
        <time>2016-07-31T08:39:54Z</time>
      </trkpt>
      <trkpt lat="42.43181" lon="0.04216">
        <ele>1018.4</ele>
        <time>2016-07-31T08:39:55Z</time>
      </trkpt>
      <trkpt lat="42.43187" lon="0.04224">
        <ele>1017.2</ele>
        <time>2016-07-31T08:39:57Z</time>
      </trkpt>
      <trkpt lat="42.4319" lon="0.04227">
        <ele>1016.4</ele>
        <time>2016-07-31T08:39:58Z</time>
      </trkpt>
      <trkpt lat="42.43193" lon="0.04231">
        <ele>1015.7</ele>
        <time>2016-07-31T08:39:59Z</time>
      </trkpt>
      <trkpt lat="42.43197" lon="0.04235">
        <ele>1014.8</ele>
        <time>2016-07-31T08:40:00Z</time>
      </trkpt>
      <trkpt lat="42.43201" lon="0.04239">
        <ele>1014.1</ele>
        <time>2016-07-31T08:40:01Z</time>
      </trkpt>
      <trkpt lat="42.43204" lon="0.04242">
        <ele>1013.4</ele>
        <time>2016-07-31T08:40:02Z</time>
      </trkpt>
      <trkpt lat="42.43207" lon="0.04245">
        <ele>1012.4</ele>
        <time>2016-07-31T08:40:03Z</time>
      </trkpt>
      <trkpt lat="42.43211" lon="0.04248">
        <ele>1011.3</ele>
        <time>2016-07-31T08:40:04Z</time>
      </trkpt>
      <trkpt lat="42.43214" lon="0.04251">
        <ele>1010.4</ele>
        <time>2016-07-31T08:40:05Z</time>
      </trkpt>
      <trkpt lat="42.43217" lon="0.04254">
        <ele>1009.6</ele>
        <time>2016-07-31T08:40:06Z</time>
      </trkpt>
      <trkpt lat="42.4322" lon="0.04256">
        <ele>1008.8</ele>
        <time>2016-07-31T08:40:07Z</time>
      </trkpt>
      <trkpt lat="42.43223" lon="0.04259">
        <ele>1008</ele>
        <time>2016-07-31T08:40:08Z</time>
      </trkpt>
      <trkpt lat="42.43227" lon="0.04263">
        <ele>1007.3</ele>
        <time>2016-07-31T08:40:09Z</time>
      </trkpt>
      <trkpt lat="42.4323" lon="0.04266">
        <ele>1006.8</ele>
        <time>2016-07-31T08:40:10Z</time>
      </trkpt>
      <trkpt lat="42.43232" lon="0.0427">
        <ele>1006.4</ele>
        <time>2016-07-31T08:40:11Z</time>
      </trkpt>
      <trkpt lat="42.43234" lon="0.04273">
        <ele>1006.1</ele>
        <time>2016-07-31T08:40:12Z</time>
      </trkpt>
      <trkpt lat="42.43238" lon="0.04276">
        <ele>1005.1</ele>
        <time>2016-07-31T08:40:14Z</time>
      </trkpt>
      <trkpt lat="42.43243" lon="0.04279">
        <ele>1003.6</ele>
        <time>2016-07-31T08:40:16Z</time>
      </trkpt>
      <trkpt lat="42.43246" lon="0.04281">
        <ele>1002.5</ele>
        <time>2016-07-31T08:40:17Z</time>
      </trkpt>
      <trkpt lat="42.4325" lon="0.04283">
        <ele>1001.1</ele>
        <time>2016-07-31T08:40:18Z</time>
      </trkpt>
      <trkpt lat="42.43254" lon="0.04286">
        <ele>999.8</ele>
        <time>2016-07-31T08:40:19Z</time>
      </trkpt>
      <trkpt lat="42.43257" lon="0.04288">
        <ele>998.9</ele>
        <time>2016-07-31T08:40:20Z</time>
      </trkpt>
      <trkpt lat="42.4326" lon="0.04291">
        <ele>998.1</ele>
        <time>2016-07-31T08:40:21Z</time>
      </trkpt>
      <trkpt lat="42.43263" lon="0.04294">
        <ele>997.7</ele>
        <time>2016-07-31T08:40:22Z</time>
      </trkpt>
      <trkpt lat="42.43265" lon="0.04297">
        <ele>997.4</ele>
        <time>2016-07-31T08:40:23Z</time>
      </trkpt>
      <trkpt lat="42.43268" lon="0.04299">
        <ele>997</ele>
        <time>2016-07-31T08:40:24Z</time>
      </trkpt>
      <trkpt lat="42.43271" lon="0.043">
        <ele>995.7</ele>
        <time>2016-07-31T08:40:26Z</time>
      </trkpt>
      <trkpt lat="42.43271" lon="0.04295">
        <ele>994.2</ele>
        <time>2016-07-31T08:40:28Z</time>
      </trkpt>
      <trkpt lat="42.4327" lon="0.04291">
        <ele>993.7</ele>
        <time>2016-07-31T08:40:29Z</time>
      </trkpt>
      <trkpt lat="42.43268" lon="0.04287">
        <ele>993.6</ele>
        <time>2016-07-31T08:40:30Z</time>
      </trkpt>
      <trkpt lat="42.43267" lon="0.04282">
        <ele>993.1</ele>
        <time>2016-07-31T08:40:31Z</time>
      </trkpt>
      <trkpt lat="42.43265" lon="0.04276">
        <ele>992.5</ele>
        <time>2016-07-31T08:40:32Z</time>
      </trkpt>
      <trkpt lat="42.43265" lon="0.04271">
        <ele>991.7</ele>
        <time>2016-07-31T08:40:33Z</time>
      </trkpt>
      <trkpt lat="42.43264" lon="0.04266">
        <ele>990.9</ele>
        <time>2016-07-31T08:40:34Z</time>
      </trkpt>
      <trkpt lat="42.43263" lon="0.04261">
        <ele>990.2</ele>
        <time>2016-07-31T08:40:35Z</time>
      </trkpt>
      <trkpt lat="42.43262" lon="0.04257">
        <ele>989.8</ele>
        <time>2016-07-31T08:40:36Z</time>
      </trkpt>
      <trkpt lat="42.4326" lon="0.04253">
        <ele>989.8</ele>
        <time>2016-07-31T08:40:37Z</time>
      </trkpt>
      <trkpt lat="42.43258" lon="0.0425">
        <ele>989.9</ele>
        <time>2016-07-31T08:40:38Z</time>
      </trkpt>
      <trkpt lat="42.43256" lon="0.04245">
        <ele>989.6</ele>
        <time>2016-07-31T08:40:39Z</time>
      </trkpt>
      <trkpt lat="42.43255" lon="0.04239">
        <ele>989.1</ele>
        <time>2016-07-31T08:40:40Z</time>
      </trkpt>
      <trkpt lat="42.43254" lon="0.04234">
        <ele>988.5</ele>
        <time>2016-07-31T08:40:41Z</time>
      </trkpt>
      <trkpt lat="42.43253" lon="0.0423">
        <ele>988</ele>
        <time>2016-07-31T08:40:42Z</time>
      </trkpt>
      <trkpt lat="42.43252" lon="0.04226">
        <ele>987.5</ele>
        <time>2016-07-31T08:40:43Z</time>
      </trkpt>
      <trkpt lat="42.43251" lon="0.04221">
        <ele>987</ele>
        <time>2016-07-31T08:40:44Z</time>
      </trkpt>
      <trkpt lat="42.4325" lon="0.04217">
        <ele>986.4</ele>
        <time>2016-07-31T08:40:45Z</time>
      </trkpt>
      <trkpt lat="42.43249" lon="0.04213">
        <ele>986.1</ele>
        <time>2016-07-31T08:40:46Z</time>
      </trkpt>
      <trkpt lat="42.43247" lon="0.04209">
        <ele>985.9</ele>
        <time>2016-07-31T08:40:47Z</time>
      </trkpt>
      <trkpt lat="42.43246" lon="0.04205">
        <ele>986</ele>
        <time>2016-07-31T08:40:48Z</time>
      </trkpt>
      <trkpt lat="42.43244" lon="0.042">
        <ele>986</ele>
        <time>2016-07-31T08:40:49Z</time>
      </trkpt>
      <trkpt lat="42.43243" lon="0.04195">
        <ele>985.5</ele>
        <time>2016-07-31T08:40:50Z</time>
      </trkpt>
      <trkpt lat="42.43243" lon="0.04189">
        <ele>985.2</ele>
        <time>2016-07-31T08:40:51Z</time>
      </trkpt>
      <trkpt lat="42.43242" lon="0.04185">
        <ele>985</ele>
        <time>2016-07-31T08:40:52Z</time>
      </trkpt>
      <trkpt lat="42.43239" lon="0.0418">
        <ele>985.1</ele>
        <time>2016-07-31T08:40:54Z</time>
      </trkpt>
      <trkpt lat="42.43237" lon="0.04175">
        <ele>985.5</ele>
        <time>2016-07-31T08:40:56Z</time>
      </trkpt>
      <trkpt lat="42.43237" lon="0.0417">
        <ele>984.8</ele>
        <time>2016-07-31T08:40:58Z</time>
      </trkpt>
      <trkpt lat="42.43239" lon="0.04165">
        <ele>983.3</ele>
        <time>2016-07-31T08:41:00Z</time>
      </trkpt>
      <trkpt lat="42.4324" lon="0.0416">
        <ele>982</ele>
        <time>2016-07-31T08:41:02Z</time>
      </trkpt>
      <trkpt lat="42.43239" lon="0.04152">
        <ele>981.3</ele>
        <time>2016-07-31T08:41:04Z</time>
      </trkpt>
      <trkpt lat="42.43239" lon="0.04146">
        <ele>980.4</ele>
        <time>2016-07-31T08:41:06Z</time>
      </trkpt>
      <trkpt lat="42.4324" lon="0.04139">
        <ele>978.6</ele>
        <time>2016-07-31T08:41:08Z</time>
      </trkpt>
      <trkpt lat="42.43243" lon="0.04136">
        <ele>977</ele>
        <time>2016-07-31T08:41:10Z</time>
      </trkpt>
      <trkpt lat="42.43247" lon="0.04135">
        <ele>975.1</ele>
        <time>2016-07-31T08:41:12Z</time>
      </trkpt>
      <trkpt lat="42.4325" lon="0.0413">
        <ele>973.1</ele>
        <time>2016-07-31T08:41:14Z</time>
      </trkpt>
      <trkpt lat="42.43251" lon="0.04126">
        <ele>972.2</ele>
        <time>2016-07-31T08:41:15Z</time>
      </trkpt>
      <trkpt lat="42.43252" lon="0.04122">
        <ele>971.7</ele>
        <time>2016-07-31T08:41:16Z</time>
      </trkpt>
      <trkpt lat="42.43254" lon="0.0412">
        <ele>970.5</ele>
        <time>2016-07-31T08:41:19Z</time>
      </trkpt>
      <trkpt lat="42.43258" lon="0.04122">
        <ele>969</ele>
        <time>2016-07-31T08:41:21Z</time>
      </trkpt>
      <trkpt lat="42.43261" lon="0.04123">
        <ele>967.9</ele>
        <time>2016-07-31T08:41:23Z</time>
      </trkpt>
      <trkpt lat="42.43265" lon="0.04125">
        <ele>966.1</ele>
        <time>2016-07-31T08:41:25Z</time>
      </trkpt>
      <trkpt lat="42.4327" lon="0.04125">
        <ele>964.1</ele>
        <time>2016-07-31T08:41:27Z</time>
      </trkpt>
      <trkpt lat="42.43273" lon="0.04126">
        <ele>963</ele>
        <time>2016-07-31T08:41:28Z</time>
      </trkpt>
      <trkpt lat="42.43277" lon="0.04128">
        <ele>961.6</ele>
        <time>2016-07-31T08:41:30Z</time>
      </trkpt>
      <trkpt lat="42.43279" lon="0.04131">
        <ele>961</ele>
        <time>2016-07-31T08:41:32Z</time>
      </trkpt>
      <trkpt lat="42.43281" lon="0.04135">
        <ele>960.7</ele>
        <time>2016-07-31T08:41:34Z</time>
      </trkpt>
      <trkpt lat="42.43283" lon="0.04142">
        <ele>960.7</ele>
        <time>2016-07-31T08:41:36Z</time>
      </trkpt>
      <trkpt lat="42.43285" lon="0.04146">
        <ele>960.4</ele>
        <time>2016-07-31T08:41:37Z</time>
      </trkpt>
      <trkpt lat="42.43286" lon="0.04149">
        <ele>960.2</ele>
        <time>2016-07-31T08:41:38Z</time>
      </trkpt>
      <trkpt lat="42.43288" lon="0.04153">
        <ele>960.1</ele>
        <time>2016-07-31T08:41:39Z</time>
      </trkpt>
      <trkpt lat="42.43289" lon="0.04158">
        <ele>960.1</ele>
        <time>2016-07-31T08:41:41Z</time>
      </trkpt>
      <trkpt lat="42.43291" lon="0.04163">
        <ele>960</ele>
        <time>2016-07-31T08:41:43Z</time>
      </trkpt>
      <trkpt lat="42.43291" lon="0.04169">
        <ele>960.5</ele>
        <time>2016-07-31T08:41:45Z</time>
      </trkpt>
      <trkpt lat="42.43291" lon="0.04173">
        <ele>961.3</ele>
        <time>2016-07-31T08:41:47Z</time>
      </trkpt>
      <trkpt lat="42.43291" lon="0.04178">
        <ele>961.5</ele>
        <time>2016-07-31T08:41:49Z</time>
      </trkpt>
      <trkpt lat="42.43295" lon="0.04184">
        <ele>961.1</ele>
        <time>2016-07-31T08:41:51Z</time>
      </trkpt>
      <trkpt lat="42.43298" lon="0.04188">
        <ele>960.6</ele>
        <time>2016-07-31T08:41:52Z</time>
      </trkpt>
      <trkpt lat="42.433" lon="0.04191">
        <ele>960.1</ele>
        <time>2016-07-31T08:41:53Z</time>
      </trkpt>
      <trkpt lat="42.43303" lon="0.04193">
        <ele>959.6</ele>
        <time>2016-07-31T08:41:54Z</time>
      </trkpt>
      <trkpt lat="42.43305" lon="0.04195">
        <ele>958.9</ele>
        <time>2016-07-31T08:41:55Z</time>
      </trkpt>
      <trkpt lat="42.43308" lon="0.04198">
        <ele>958.3</ele>
        <time>2016-07-31T08:41:56Z</time>
      </trkpt>
      <trkpt lat="42.4331" lon="0.04201">
        <ele>958</ele>
        <time>2016-07-31T08:41:57Z</time>
      </trkpt>
      <trkpt lat="42.43312" lon="0.04204">
        <ele>957.7</ele>
        <time>2016-07-31T08:41:58Z</time>
      </trkpt>
      <trkpt lat="42.43314" lon="0.04207">
        <ele>957.2</ele>
        <time>2016-07-31T08:41:59Z</time>
      </trkpt>
      <trkpt lat="42.43318" lon="0.04209">
        <ele>956.4</ele>
        <time>2016-07-31T08:42:00Z</time>
      </trkpt>
      <trkpt lat="42.43325" lon="0.04212">
        <ele>954.7</ele>
        <time>2016-07-31T08:42:02Z</time>
      </trkpt>
      <trkpt lat="42.43329" lon="0.04215">
        <ele>954.1</ele>
        <time>2016-07-31T08:42:03Z</time>
      </trkpt>
      <trkpt lat="42.43333" lon="0.04219">
        <ele>953.7</ele>
        <time>2016-07-31T08:42:04Z</time>
      </trkpt>
      <trkpt lat="42.43337" lon="0.04223">
        <ele>953.3</ele>
        <time>2016-07-31T08:42:05Z</time>
      </trkpt>
      <trkpt lat="42.4334" lon="0.04227">
        <ele>953.2</ele>
        <time>2016-07-31T08:42:06Z</time>
      </trkpt>
      <trkpt lat="42.43343" lon="0.04232">
        <ele>953.3</ele>
        <time>2016-07-31T08:42:07Z</time>
      </trkpt>
      <trkpt lat="42.43346" lon="0.04237">
        <ele>953.4</ele>
        <time>2016-07-31T08:42:08Z</time>
      </trkpt>
      <trkpt lat="42.43349" lon="0.04242">
        <ele>953.5</ele>
        <time>2016-07-31T08:42:09Z</time>
      </trkpt>
      <trkpt lat="42.43353" lon="0.04245">
        <ele>953.1</ele>
        <time>2016-07-31T08:42:10Z</time>
      </trkpt>
      <trkpt lat="42.43356" lon="0.04248">
        <ele>952.6</ele>
        <time>2016-07-31T08:42:11Z</time>
      </trkpt>
      <trkpt lat="42.4336" lon="0.04249">
        <ele>951.8</ele>
        <time>2016-07-31T08:42:12Z</time>
      </trkpt>
      <trkpt lat="42.43363" lon="0.04249">
        <ele>950.8</ele>
        <time>2016-07-31T08:42:13Z</time>
      </trkpt>
      <trkpt lat="42.43366" lon="0.0425">
        <ele>949.9</ele>
        <time>2016-07-31T08:42:14Z</time>
      </trkpt>
      <trkpt lat="42.4337" lon="0.04251">
        <ele>948.9</ele>
        <time>2016-07-31T08:42:16Z</time>
      </trkpt>
      <trkpt lat="42.43372" lon="0.04254">
        <ele>948.9</ele>
        <time>2016-07-31T08:42:18Z</time>
      </trkpt>
      <trkpt lat="42.43373" lon="0.04259">
        <ele>949.7</ele>
        <time>2016-07-31T08:42:20Z</time>
      </trkpt>
      <trkpt lat="42.43374" lon="0.04264">
        <ele>950.8</ele>
        <time>2016-07-31T08:42:23Z</time>
      </trkpt>
      <trkpt lat="42.43376" lon="0.04267">
        <ele>950.6</ele>
        <time>2016-07-31T08:42:25Z</time>
      </trkpt>
      <trkpt lat="42.43381" lon="0.04271">
        <ele>949.5</ele>
        <time>2016-07-31T08:42:27Z</time>
      </trkpt>
      <trkpt lat="42.43384" lon="0.04273">
        <ele>948.9</ele>
        <time>2016-07-31T08:42:28Z</time>
      </trkpt>
      <trkpt lat="42.43386" lon="0.04275">
        <ele>948.3</ele>
        <time>2016-07-31T08:42:29Z</time>
      </trkpt>
      <trkpt lat="42.43389" lon="0.04277">
        <ele>947.5</ele>
        <time>2016-07-31T08:42:31Z</time>
      </trkpt>
      <trkpt lat="42.43393" lon="0.04281">
        <ele>946.7</ele>
        <time>2016-07-31T08:42:33Z</time>
      </trkpt>
      <trkpt lat="42.43397" lon="0.04281">
        <ele>944.9</ele>
        <time>2016-07-31T08:42:35Z</time>
      </trkpt>
      <trkpt lat="42.43402" lon="0.0428">
        <ele>942.8</ele>
        <time>2016-07-31T08:42:37Z</time>
      </trkpt>
      <trkpt lat="42.43405" lon="0.04281">
        <ele>941.7</ele>
        <time>2016-07-31T08:42:40Z</time>
      </trkpt>
      <trkpt lat="42.43407" lon="0.04278">
        <ele>940.3</ele>
        <time>2016-07-31T08:42:45Z</time>
      </trkpt>
      <trkpt lat="42.4341" lon="0.04277">
        <ele>938.9</ele>
        <time>2016-07-31T08:42:48Z</time>
      </trkpt>
      <trkpt lat="42.43412" lon="0.0428">
        <ele>938.4</ele>
        <time>2016-07-31T08:42:50Z</time>
      </trkpt>
      <trkpt lat="42.43415" lon="0.04282">
        <ele>937.6</ele>
        <time>2016-07-31T08:42:52Z</time>
      </trkpt>
      <trkpt lat="42.43418" lon="0.04285">
        <ele>937.1</ele>
        <time>2016-07-31T08:42:54Z</time>
      </trkpt>
      <trkpt lat="42.43419" lon="0.04291">
        <ele>937.9</ele>
        <time>2016-07-31T08:42:56Z</time>
      </trkpt>
      <trkpt lat="42.43419" lon="0.04295">
        <ele>938.5</ele>
        <time>2016-07-31T08:42:57Z</time>
      </trkpt>
      <trkpt lat="42.43419" lon="0.04301">
        <ele>939.9</ele>
        <time>2016-07-31T08:42:59Z</time>
      </trkpt>
      <trkpt lat="42.43421" lon="0.04307">
        <ele>939.9</ele>
        <time>2016-07-31T08:43:01Z</time>
      </trkpt>
      <trkpt lat="42.43425" lon="0.0431">
        <ele>938.9</ele>
        <time>2016-07-31T08:43:03Z</time>
      </trkpt>
      <trkpt lat="42.43427" lon="0.04312">
        <ele>938.1</ele>
        <time>2016-07-31T08:43:08Z</time>
      </trkpt>
      <trkpt lat="42.4343" lon="0.04314">
        <ele>937.4</ele>
        <time>2016-07-31T08:43:12Z</time>
      </trkpt>
      <trkpt lat="42.43433" lon="0.04316">
        <ele>936.5</ele>
        <time>2016-07-31T08:43:15Z</time>
      </trkpt>
      <trkpt lat="42.43435" lon="0.04319">
        <ele>936.2</ele>
        <time>2016-07-31T08:43:21Z</time>
      </trkpt>
      <trkpt lat="42.43438" lon="0.0432">
        <ele>934.8</ele>
        <time>2016-07-31T08:43:30Z</time>
      </trkpt>
      <trkpt lat="42.43444" lon="0.04324">
        <ele>933.2</ele>
        <time>2016-07-31T08:44:07Z</time>
      </trkpt>
      <trkpt lat="42.43446" lon="0.04329">
        <ele>932.8</ele>
        <time>2016-07-31T08:44:10Z</time>
      </trkpt>
      <trkpt lat="42.43448" lon="0.04332">
        <ele>932.5</ele>
        <time>2016-07-31T08:44:16Z</time>
      </trkpt>
      <trkpt lat="42.43451" lon="0.04331">
        <ele>931.1</ele>
        <time>2016-07-31T08:44:27Z</time>
      </trkpt>
      <trkpt lat="42.43454" lon="0.0433">
        <ele>929.5</ele>
        <time>2016-07-31T08:44:32Z</time>
      </trkpt>
      <trkpt lat="42.43457" lon="0.0433">
        <ele>928.1</ele>
        <time>2016-07-31T08:44:38Z</time>
      </trkpt>
      <trkpt lat="42.4346" lon="0.04331">
        <ele>926.7</ele>
        <time>2016-07-31T08:44:42Z</time>
      </trkpt>
      <trkpt lat="42.43463" lon="0.04328">
        <ele>925</ele>
        <time>2016-07-31T08:44:45Z</time>
      </trkpt>
      <trkpt lat="42.43467" lon="0.04328">
        <ele>923.4</ele>
        <time>2016-07-31T08:44:48Z</time>
      </trkpt>
      <trkpt lat="42.4347" lon="0.0433">
        <ele>922.4</ele>
        <time>2016-07-31T08:44:52Z</time>
      </trkpt>
      <trkpt lat="42.43471" lon="0.04326">
        <ele>921.2</ele>
        <time>2016-07-31T08:44:57Z</time>
      </trkpt>
      <trkpt lat="42.43473" lon="0.04324">
        <ele>919.8</ele>
        <time>2016-07-31T08:45:00Z</time>
      </trkpt>
      <trkpt lat="42.43477" lon="0.04323">
        <ele>918.1</ele>
        <time>2016-07-31T08:45:03Z</time>
      </trkpt>
      <trkpt lat="42.43481" lon="0.04326">
        <ele>917.1</ele>
        <time>2016-07-31T08:45:05Z</time>
      </trkpt>
      <trkpt lat="42.43484" lon="0.04331">
        <ele>916.4</ele>
        <time>2016-07-31T08:45:07Z</time>
      </trkpt>
      <trkpt lat="42.43488" lon="0.04336">
        <ele>915.5</ele>
        <time>2016-07-31T08:45:09Z</time>
      </trkpt>
      <trkpt lat="42.4349" lon="0.04338">
        <ele>915.1</ele>
        <time>2016-07-31T08:45:10Z</time>
      </trkpt>
      <trkpt lat="42.43492" lon="0.04341">
        <ele>914.5</ele>
        <time>2016-07-31T08:45:12Z</time>
      </trkpt>
      <trkpt lat="42.43494" lon="0.04345">
        <ele>914.2</ele>
        <time>2016-07-31T08:45:18Z</time>
      </trkpt>
      <trkpt lat="42.43496" lon="0.04349">
        <ele>914.1</ele>
        <time>2016-07-31T08:45:20Z</time>
      </trkpt>
      <trkpt lat="42.43496" lon="0.04355">
        <ele>914.8</ele>
        <time>2016-07-31T08:45:23Z</time>
      </trkpt>
      <trkpt lat="42.43498" lon="0.0436">
        <ele>914.8</ele>
        <time>2016-07-31T08:45:25Z</time>
      </trkpt>
      <trkpt lat="42.435" lon="0.04364">
        <ele>914.8</ele>
        <time>2016-07-31T08:45:27Z</time>
      </trkpt>
      <trkpt lat="42.43501" lon="0.04368">
        <ele>915</ele>
        <time>2016-07-31T08:45:29Z</time>
      </trkpt>
      <trkpt lat="42.43503" lon="0.04375">
        <ele>915.2</ele>
        <time>2016-07-31T08:45:31Z</time>
      </trkpt>
      <trkpt lat="42.43504" lon="0.04379">
        <ele>915.2</ele>
        <time>2016-07-31T08:45:32Z</time>
      </trkpt>
      <trkpt lat="42.43507" lon="0.04383">
        <ele>914.4</ele>
        <time>2016-07-31T08:45:34Z</time>
      </trkpt>
      <trkpt lat="42.4351" lon="0.04384">
        <ele>913.4</ele>
        <time>2016-07-31T08:45:35Z</time>
      </trkpt>
      <trkpt lat="42.43514" lon="0.04385">
        <ele>912.1</ele>
        <time>2016-07-31T08:45:37Z</time>
      </trkpt>
      <trkpt lat="42.43517" lon="0.04391">
        <ele>911.7</ele>
        <time>2016-07-31T08:45:39Z</time>
      </trkpt>
      <trkpt lat="42.43518" lon="0.04398">
        <ele>912.2</ele>
        <time>2016-07-31T08:45:41Z</time>
      </trkpt>
      <trkpt lat="42.4352" lon="0.04402">
        <ele>912.1</ele>
        <time>2016-07-31T08:45:43Z</time>
      </trkpt>
      <trkpt lat="42.43522" lon="0.04405">
        <ele>911.5</ele>
        <time>2016-07-31T08:45:44Z</time>
      </trkpt>
      <trkpt lat="42.43525" lon="0.04406">
        <ele>910.5</ele>
        <time>2016-07-31T08:45:45Z</time>
      </trkpt>
      <trkpt lat="42.43529" lon="0.04408">
        <ele>909</ele>
        <time>2016-07-31T08:45:47Z</time>
      </trkpt>
      <trkpt lat="42.43532" lon="0.04411">
        <ele>908.2</ele>
        <time>2016-07-31T08:45:49Z</time>
      </trkpt>
      <trkpt lat="42.43536" lon="0.04414">
        <ele>906.9</ele>
        <time>2016-07-31T08:45:51Z</time>
      </trkpt>
      <trkpt lat="42.4354" lon="0.04417">
        <ele>905.7</ele>
        <time>2016-07-31T08:45:53Z</time>
      </trkpt>
      <trkpt lat="42.43543" lon="0.04423">
        <ele>905.4</ele>
        <time>2016-07-31T08:45:55Z</time>
      </trkpt>
      <trkpt lat="42.43545" lon="0.04426">
        <ele>905.2</ele>
        <time>2016-07-31T08:45:56Z</time>
      </trkpt>
      <trkpt lat="42.43547" lon="0.04429">
        <ele>904.8</ele>
        <time>2016-07-31T08:45:57Z</time>
      </trkpt>
      <trkpt lat="42.4355" lon="0.04434">
        <ele>904.1</ele>
        <time>2016-07-31T08:45:59Z</time>
      </trkpt>
      <trkpt lat="42.43553" lon="0.04438">
        <ele>903.6</ele>
        <time>2016-07-31T08:46:00Z</time>
      </trkpt>
      <trkpt lat="42.43555" lon="0.04442">
        <ele>903</ele>
        <time>2016-07-31T08:46:01Z</time>
      </trkpt>
      <trkpt lat="42.43558" lon="0.04446">
        <ele>902.4</ele>
        <time>2016-07-31T08:46:02Z</time>
      </trkpt>
      <trkpt lat="42.4356" lon="0.04449">
        <ele>901.8</ele>
        <time>2016-07-31T08:46:03Z</time>
      </trkpt>
      <trkpt lat="42.43562" lon="0.04452">
        <ele>901.5</ele>
        <time>2016-07-31T08:46:04Z</time>
      </trkpt>
      <trkpt lat="42.43563" lon="0.04457">
        <ele>901.6</ele>
        <time>2016-07-31T08:46:05Z</time>
      </trkpt>
      <trkpt lat="42.43564" lon="0.04463">
        <ele>902.4</ele>
        <time>2016-07-31T08:46:06Z</time>
      </trkpt>
      <trkpt lat="42.43565" lon="0.04467">
        <ele>903</ele>
        <time>2016-07-31T08:46:07Z</time>
      </trkpt>
      <trkpt lat="42.43568" lon="0.04472">
        <ele>902.9</ele>
        <time>2016-07-31T08:46:09Z</time>
      </trkpt>
      <trkpt lat="42.43571" lon="0.04474">
        <ele>902.2</ele>
        <time>2016-07-31T08:46:10Z</time>
      </trkpt>
      <trkpt lat="42.43573" lon="0.04476">
        <ele>901.5</ele>
        <time>2016-07-31T08:46:11Z</time>
      </trkpt>
      <trkpt lat="42.43576" lon="0.04478">
        <ele>900.7</ele>
        <time>2016-07-31T08:46:12Z</time>
      </trkpt>
      <trkpt lat="42.4358" lon="0.04482">
        <ele>899.8</ele>
        <time>2016-07-31T08:46:14Z</time>
      </trkpt>
      <trkpt lat="42.43584" lon="0.04487">
        <ele>898.8</ele>
        <time>2016-07-31T08:46:16Z</time>
      </trkpt>
      <trkpt lat="42.43587" lon="0.04491">
        <ele>898.3</ele>
        <time>2016-07-31T08:46:17Z</time>
      </trkpt>
      <trkpt lat="42.43589" lon="0.04493">
        <ele>898.1</ele>
        <time>2016-07-31T08:46:18Z</time>
      </trkpt>
      <trkpt lat="42.43591" lon="0.04497">
        <ele>897.9</ele>
        <time>2016-07-31T08:46:19Z</time>
      </trkpt>
      <trkpt lat="42.43593" lon="0.04502">
        <ele>897.8</ele>
        <time>2016-07-31T08:46:20Z</time>
      </trkpt>
      <trkpt lat="42.43595" lon="0.04506">
        <ele>897.8</ele>
        <time>2016-07-31T08:46:21Z</time>
      </trkpt>
      <trkpt lat="42.43596" lon="0.04511">
        <ele>898.1</ele>
        <time>2016-07-31T08:46:22Z</time>
      </trkpt>
      <trkpt lat="42.43598" lon="0.04514">
        <ele>898.4</ele>
        <time>2016-07-31T08:46:23Z</time>
      </trkpt>
      <trkpt lat="42.43601" lon="0.0452">
        <ele>898.2</ele>
        <time>2016-07-31T08:46:25Z</time>
      </trkpt>
      <trkpt lat="42.43603" lon="0.04523">
        <ele>897.5</ele>
        <time>2016-07-31T08:46:26Z</time>
      </trkpt>
      <trkpt lat="42.43606" lon="0.04525">
        <ele>896.5</ele>
        <time>2016-07-31T08:46:27Z</time>
      </trkpt>
      <trkpt lat="42.43609" lon="0.04528">
        <ele>895.5</ele>
        <time>2016-07-31T08:46:28Z</time>
      </trkpt>
      <trkpt lat="42.43612" lon="0.04531">
        <ele>894.5</ele>
        <time>2016-07-31T08:46:29Z</time>
      </trkpt>
      <trkpt lat="42.43616" lon="0.04534">
        <ele>893.4</ele>
        <time>2016-07-31T08:46:30Z</time>
      </trkpt>
      <trkpt lat="42.43619" lon="0.04537">
        <ele>892.3</ele>
        <time>2016-07-31T08:46:31Z</time>
      </trkpt>
      <trkpt lat="42.43622" lon="0.04541">
        <ele>891.2</ele>
        <time>2016-07-31T08:46:32Z</time>
      </trkpt>
      <trkpt lat="42.43625" lon="0.04543">
        <ele>890.2</ele>
        <time>2016-07-31T08:46:33Z</time>
      </trkpt>
      <trkpt lat="42.43628" lon="0.04545">
        <ele>889.6</ele>
        <time>2016-07-31T08:46:34Z</time>
      </trkpt>
      <trkpt lat="42.4363" lon="0.04547">
        <ele>889.1</ele>
        <time>2016-07-31T08:46:35Z</time>
      </trkpt>
      <trkpt lat="42.43633" lon="0.04551">
        <ele>888.5</ele>
        <time>2016-07-31T08:46:36Z</time>
      </trkpt>
      <trkpt lat="42.43636" lon="0.04554">
        <ele>888.1</ele>
        <time>2016-07-31T08:46:37Z</time>
      </trkpt>
      <trkpt lat="42.43639" lon="0.04558">
        <ele>887.8</ele>
        <time>2016-07-31T08:46:38Z</time>
      </trkpt>
      <trkpt lat="42.43641" lon="0.04561">
        <ele>887.6</ele>
        <time>2016-07-31T08:46:39Z</time>
      </trkpt>
      <trkpt lat="42.43643" lon="0.04564">
        <ele>887.2</ele>
        <time>2016-07-31T08:46:40Z</time>
      </trkpt>
      <trkpt lat="42.43646" lon="0.04566">
        <ele>886.3</ele>
        <time>2016-07-31T08:46:41Z</time>
      </trkpt>
      <trkpt lat="42.4365" lon="0.04567">
        <ele>885.1</ele>
        <time>2016-07-31T08:46:42Z</time>
      </trkpt>
      <trkpt lat="42.43653" lon="0.04569">
        <ele>884</ele>
        <time>2016-07-31T08:46:43Z</time>
      </trkpt>
      <trkpt lat="42.43656" lon="0.04574">
        <ele>883.4</ele>
        <time>2016-07-31T08:46:45Z</time>
      </trkpt>
      <trkpt lat="42.43658" lon="0.04578">
        <ele>883.4</ele>
        <time>2016-07-31T08:46:46Z</time>
      </trkpt>
      <trkpt lat="42.4366" lon="0.04582">
        <ele>883.3</ele>
        <time>2016-07-31T08:46:47Z</time>
      </trkpt>
      <trkpt lat="42.43663" lon="0.04585">
        <ele>882.9</ele>
        <time>2016-07-31T08:46:48Z</time>
      </trkpt>
      <trkpt lat="42.43665" lon="0.04589">
        <ele>882.4</ele>
        <time>2016-07-31T08:46:49Z</time>
      </trkpt>
      <trkpt lat="42.43672" lon="0.04598">
        <ele>881.5</ele>
        <time>2016-07-31T08:46:52Z</time>
      </trkpt>
      <trkpt lat="42.43674" lon="0.04602">
        <ele>881.3</ele>
        <time>2016-07-31T08:46:53Z</time>
      </trkpt>
      <trkpt lat="42.43675" lon="0.04606">
        <ele>881.4</ele>
        <time>2016-07-31T08:46:54Z</time>
      </trkpt>
      <trkpt lat="42.43676" lon="0.0461">
        <ele>881.7</ele>
        <time>2016-07-31T08:46:55Z</time>
      </trkpt>
      <trkpt lat="42.43677" lon="0.04614">
        <ele>882.3</ele>
        <time>2016-07-31T08:46:56Z</time>
      </trkpt>
      <trkpt lat="42.43677" lon="0.04618">
        <ele>882.9</ele>
        <time>2016-07-31T08:46:57Z</time>
      </trkpt>
      <trkpt lat="42.43679" lon="0.04623">
        <ele>883.2</ele>
        <time>2016-07-31T08:46:58Z</time>
      </trkpt>
      <trkpt lat="42.4368" lon="0.04626">
        <ele>883.2</ele>
        <time>2016-07-31T08:46:59Z</time>
      </trkpt>
      <trkpt lat="42.43682" lon="0.0463">
        <ele>883.4</ele>
        <time>2016-07-31T08:47:00Z</time>
      </trkpt>
      <trkpt lat="42.43683" lon="0.04634">
        <ele>883.5</ele>
        <time>2016-07-31T08:47:01Z</time>
      </trkpt>
      <trkpt lat="42.43685" lon="0.04639">
        <ele>883.7</ele>
        <time>2016-07-31T08:47:02Z</time>
      </trkpt>
      <trkpt lat="42.43687" lon="0.04643">
        <ele>883.7</ele>
        <time>2016-07-31T08:47:03Z</time>
      </trkpt>
      <trkpt lat="42.43689" lon="0.04646">
        <ele>883.2</ele>
        <time>2016-07-31T08:47:04Z</time>
      </trkpt>
      <trkpt lat="42.43692" lon="0.04649">
        <ele>882.5</ele>
        <time>2016-07-31T08:47:05Z</time>
      </trkpt>
      <trkpt lat="42.43694" lon="0.04652">
        <ele>881.9</ele>
        <time>2016-07-31T08:47:06Z</time>
      </trkpt>
      <trkpt lat="42.43698" lon="0.04656">
        <ele>881</ele>
        <time>2016-07-31T08:47:08Z</time>
      </trkpt>
      <trkpt lat="42.43702" lon="0.04663">
        <ele>880.2</ele>
        <time>2016-07-31T08:47:10Z</time>
      </trkpt>
      <trkpt lat="42.43706" lon="0.04667">
        <ele>879.4</ele>
        <time>2016-07-31T08:47:11Z</time>
      </trkpt>
      <trkpt lat="42.43709" lon="0.04671">
        <ele>878.7</ele>
        <time>2016-07-31T08:47:12Z</time>
      </trkpt>
      <trkpt lat="42.43712" lon="0.04674">
        <ele>878.3</ele>
        <time>2016-07-31T08:47:13Z</time>
      </trkpt>
      <trkpt lat="42.43715" lon="0.04678">
        <ele>877.8</ele>
        <time>2016-07-31T08:47:15Z</time>
      </trkpt>
      <trkpt lat="42.43718" lon="0.04681">
        <ele>877.3</ele>
        <time>2016-07-31T08:47:16Z</time>
      </trkpt>
      <trkpt lat="42.43721" lon="0.04684">
        <ele>876.6</ele>
        <time>2016-07-31T08:47:17Z</time>
      </trkpt>
      <trkpt lat="42.43725" lon="0.04687">
        <ele>875.9</ele>
        <time>2016-07-31T08:47:18Z</time>
      </trkpt>
      <trkpt lat="42.43728" lon="0.04689">
        <ele>875.3</ele>
        <time>2016-07-31T08:47:19Z</time>
      </trkpt>
      <trkpt lat="42.43732" lon="0.04694">
        <ele>874.4</ele>
        <time>2016-07-31T08:47:21Z</time>
      </trkpt>
      <trkpt lat="42.43736" lon="0.04699">
        <ele>873.9</ele>
        <time>2016-07-31T08:47:23Z</time>
      </trkpt>
      <trkpt lat="42.43738" lon="0.04702">
        <ele>873.8</ele>
        <time>2016-07-31T08:47:24Z</time>
      </trkpt>
      <trkpt lat="42.4374" lon="0.04705">
        <ele>873.7</ele>
        <time>2016-07-31T08:47:25Z</time>
      </trkpt>
      <trkpt lat="42.43742" lon="0.04708">
        <ele>873.6</ele>
        <time>2016-07-31T08:47:26Z</time>
      </trkpt>
      <trkpt lat="42.43744" lon="0.04712">
        <ele>873.2</ele>
        <time>2016-07-31T08:47:27Z</time>
      </trkpt>
      <trkpt lat="42.43747" lon="0.04717">
        <ele>873</ele>
        <time>2016-07-31T08:47:28Z</time>
      </trkpt>
      <trkpt lat="42.43749" lon="0.04721">
        <ele>872.7</ele>
        <time>2016-07-31T08:47:29Z</time>
      </trkpt>
      <trkpt lat="42.43751" lon="0.04725">
        <ele>872.5</ele>
        <time>2016-07-31T08:47:30Z</time>
      </trkpt>
      <trkpt lat="42.43754" lon="0.0473">
        <ele>872.3</ele>
        <time>2016-07-31T08:47:31Z</time>
      </trkpt>
      <trkpt lat="42.43757" lon="0.04734">
        <ele>871.9</ele>
        <time>2016-07-31T08:47:32Z</time>
      </trkpt>
      <trkpt lat="42.43762" lon="0.04742">
        <ele>870.8</ele>
        <time>2016-07-31T08:47:34Z</time>
      </trkpt>
      <trkpt lat="42.43765" lon="0.04746">
        <ele>870</ele>
        <time>2016-07-31T08:47:35Z</time>
      </trkpt>
      <trkpt lat="42.43769" lon="0.0475">
        <ele>869</ele>
        <time>2016-07-31T08:47:36Z</time>
      </trkpt>
      <trkpt lat="42.43772" lon="0.04754">
        <ele>868.3</ele>
        <time>2016-07-31T08:47:37Z</time>
      </trkpt>
      <trkpt lat="42.43775" lon="0.04758">
        <ele>867.8</ele>
        <time>2016-07-31T08:47:38Z</time>
      </trkpt>
      <trkpt lat="42.43777" lon="0.04762">
        <ele>867.2</ele>
        <time>2016-07-31T08:47:39Z</time>
      </trkpt>
      <trkpt lat="42.4378" lon="0.04766">
        <ele>866.7</ele>
        <time>2016-07-31T08:47:40Z</time>
      </trkpt>
      <trkpt lat="42.43782" lon="0.04771">
        <ele>866.2</ele>
        <time>2016-07-31T08:47:41Z</time>
      </trkpt>
      <trkpt lat="42.43785" lon="0.04776">
        <ele>865.6</ele>
        <time>2016-07-31T08:47:42Z</time>
      </trkpt>
      <trkpt lat="42.43788" lon="0.04779">
        <ele>864.8</ele>
        <time>2016-07-31T08:47:43Z</time>
      </trkpt>
      <trkpt lat="42.43791" lon="0.04782">
        <ele>863.8</ele>
        <time>2016-07-31T08:47:44Z</time>
      </trkpt>
      <trkpt lat="42.43794" lon="0.04783">
        <ele>862.7</ele>
        <time>2016-07-31T08:47:45Z</time>
      </trkpt>
      <trkpt lat="42.43796" lon="0.04784">
        <ele>861.8</ele>
        <time>2016-07-31T08:47:46Z</time>
      </trkpt>
      <trkpt lat="42.43799" lon="0.04785">
        <ele>860.8</ele>
        <time>2016-07-31T08:47:47Z</time>
      </trkpt>
      <trkpt lat="42.43803" lon="0.04787">
        <ele>859.6</ele>
        <time>2016-07-31T08:47:48Z</time>
      </trkpt>
      <trkpt lat="42.43806" lon="0.04789">
        <ele>858.6</ele>
        <time>2016-07-31T08:47:49Z</time>
      </trkpt>
      <trkpt lat="42.43809" lon="0.04793">
        <ele>857.8</ele>
        <time>2016-07-31T08:47:50Z</time>
      </trkpt>
      <trkpt lat="42.43813" lon="0.04797">
        <ele>857.1</ele>
        <time>2016-07-31T08:47:51Z</time>
      </trkpt>
      <trkpt lat="42.43817" lon="0.048">
        <ele>856.3</ele>
        <time>2016-07-31T08:47:52Z</time>
      </trkpt>
      <trkpt lat="42.4382" lon="0.04803">
        <ele>855.7</ele>
        <time>2016-07-31T08:47:53Z</time>
      </trkpt>
      <trkpt lat="42.43823" lon="0.04805">
        <ele>855.1</ele>
        <time>2016-07-31T08:47:54Z</time>
      </trkpt>
      <trkpt lat="42.43827" lon="0.04812">
        <ele>854.7</ele>
        <time>2016-07-31T08:47:56Z</time>
      </trkpt>
      <trkpt lat="42.43829" lon="0.04815">
        <ele>854.6</ele>
        <time>2016-07-31T08:47:57Z</time>
      </trkpt>
      <trkpt lat="42.43831" lon="0.04818">
        <ele>854.3</ele>
        <time>2016-07-31T08:47:58Z</time>
      </trkpt>
      <trkpt lat="42.43833" lon="0.04821">
        <ele>853.8</ele>
        <time>2016-07-31T08:47:59Z</time>
      </trkpt>
      <trkpt lat="42.43836" lon="0.04823">
        <ele>853.2</ele>
        <time>2016-07-31T08:48:00Z</time>
      </trkpt>
      <trkpt lat="42.4384" lon="0.04825">
        <ele>851.9</ele>
        <time>2016-07-31T08:48:02Z</time>
      </trkpt>
      <trkpt lat="42.43844" lon="0.04828">
        <ele>850.5</ele>
        <time>2016-07-31T08:48:04Z</time>
      </trkpt>
      <trkpt lat="42.43848" lon="0.04831">
        <ele>849.7</ele>
        <time>2016-07-31T08:48:06Z</time>
      </trkpt>
      <trkpt lat="42.43851" lon="0.04835">
        <ele>848.8</ele>
        <time>2016-07-31T08:48:08Z</time>
      </trkpt>
      <trkpt lat="42.43854" lon="0.04841">
        <ele>848.6</ele>
        <time>2016-07-31T08:48:10Z</time>
      </trkpt>
      <trkpt lat="42.43856" lon="0.04844">
        <ele>848.7</ele>
        <time>2016-07-31T08:48:11Z</time>
      </trkpt>
      <trkpt lat="42.43858" lon="0.04849">
        <ele>848.8</ele>
        <time>2016-07-31T08:48:12Z</time>
      </trkpt>
      <trkpt lat="42.43859" lon="0.04852">
        <ele>848.7</ele>
        <time>2016-07-31T08:48:13Z</time>
      </trkpt>
      <trkpt lat="42.43861" lon="0.04856">
        <ele>848.9</ele>
        <time>2016-07-31T08:48:14Z</time>
      </trkpt>
      <trkpt lat="42.43862" lon="0.04861">
        <ele>849.1</ele>
        <time>2016-07-31T08:48:15Z</time>
      </trkpt>
      <trkpt lat="42.43864" lon="0.04865">
        <ele>849.2</ele>
        <time>2016-07-31T08:48:16Z</time>
      </trkpt>
      <trkpt lat="42.43866" lon="0.04869">
        <ele>848.8</ele>
        <time>2016-07-31T08:48:17Z</time>
      </trkpt>
      <trkpt lat="42.43869" lon="0.04871">
        <ele>848</ele>
        <time>2016-07-31T08:48:18Z</time>
      </trkpt>
      <trkpt lat="42.43873" lon="0.04872">
        <ele>846.5</ele>
        <time>2016-07-31T08:48:20Z</time>
      </trkpt>
      <trkpt lat="42.43877" lon="0.04873">
        <ele>844.6</ele>
        <time>2016-07-31T08:48:22Z</time>
      </trkpt>
      <trkpt lat="42.4388" lon="0.04876">
        <ele>843.5</ele>
        <time>2016-07-31T08:48:23Z</time>
      </trkpt>
      <trkpt lat="42.43886" lon="0.04883">
        <ele>842.5</ele>
        <time>2016-07-31T08:48:25Z</time>
      </trkpt>
      <trkpt lat="42.43888" lon="0.04885">
        <ele>841.7</ele>
        <time>2016-07-31T08:48:26Z</time>
      </trkpt>
      <trkpt lat="42.43891" lon="0.04886">
        <ele>840.5</ele>
        <time>2016-07-31T08:48:27Z</time>
      </trkpt>
      <trkpt lat="42.43895" lon="0.04886">
        <ele>838.9</ele>
        <time>2016-07-31T08:48:28Z</time>
      </trkpt>
      <trkpt lat="42.43898" lon="0.04886">
        <ele>837.2</ele>
        <time>2016-07-31T08:48:29Z</time>
      </trkpt>
      <trkpt lat="42.43901" lon="0.04887">
        <ele>835.7</ele>
        <time>2016-07-31T08:48:30Z</time>
      </trkpt>
      <trkpt lat="42.43906" lon="0.04888">
        <ele>833.6</ele>
        <time>2016-07-31T08:48:32Z</time>
      </trkpt>
      <trkpt lat="42.4391" lon="0.04892">
        <ele>832.6</ele>
        <time>2016-07-31T08:48:34Z</time>
      </trkpt>
      <trkpt lat="42.43914" lon="0.04893">
        <ele>830.9</ele>
        <time>2016-07-31T08:48:36Z</time>
      </trkpt>
      <trkpt lat="42.4392" lon="0.04894">
        <ele>828.5</ele>
        <time>2016-07-31T08:48:38Z</time>
      </trkpt>
      <trkpt lat="42.43923" lon="0.04896">
        <ele>827.6</ele>
        <time>2016-07-31T08:48:39Z</time>
      </trkpt>
      <trkpt lat="42.43925" lon="0.04898">
        <ele>827.2</ele>
        <time>2016-07-31T08:48:40Z</time>
      </trkpt>
      <trkpt lat="42.43927" lon="0.04903">
        <ele>827.3</ele>
        <time>2016-07-31T08:48:42Z</time>
      </trkpt>
      <trkpt lat="42.4393" lon="0.04902">
        <ele>825.7</ele>
        <time>2016-07-31T08:48:52Z</time>
      </trkpt>
      <trkpt lat="42.43933" lon="0.04904">
        <ele>824.8</ele>
        <time>2016-07-31T08:48:54Z</time>
      </trkpt>
      <trkpt lat="42.43937" lon="0.04906">
        <ele>823.9</ele>
        <time>2016-07-31T08:48:56Z</time>
      </trkpt>
      <trkpt lat="42.43939" lon="0.04909">
        <ele>823.5</ele>
        <time>2016-07-31T08:48:58Z</time>
      </trkpt>
      <trkpt lat="42.43942" lon="0.04913">
        <ele>823.5</ele>
        <time>2016-07-31T08:49:27Z</time>
      </trkpt>
      <trkpt lat="42.43946" lon="0.04916">
        <ele>822.6</ele>
        <time>2016-07-31T08:49:29Z</time>
      </trkpt>
      <trkpt lat="42.43951" lon="0.04919">
        <ele>821.3</ele>
        <time>2016-07-31T08:49:31Z</time>
      </trkpt>
      <trkpt lat="42.43953" lon="0.0492">
        <ele>820.5</ele>
        <time>2016-07-31T08:49:32Z</time>
      </trkpt>
      <trkpt lat="42.43956" lon="0.04921">
        <ele>819.5</ele>
        <time>2016-07-31T08:49:33Z</time>
      </trkpt>
      <trkpt lat="42.4396" lon="0.04922">
        <ele>818.5</ele>
        <time>2016-07-31T08:49:34Z</time>
      </trkpt>
      <trkpt lat="42.43963" lon="0.04924">
        <ele>817.8</ele>
        <time>2016-07-31T08:49:35Z</time>
      </trkpt>
      <trkpt lat="42.43966" lon="0.04927">
        <ele>817.4</ele>
        <time>2016-07-31T08:49:36Z</time>
      </trkpt>
      <trkpt lat="42.43969" lon="0.04931">
        <ele>817.7</ele>
        <time>2016-07-31T08:49:37Z</time>
      </trkpt>
      <trkpt lat="42.43972" lon="0.04936">
        <ele>818.3</ele>
        <time>2016-07-31T08:49:38Z</time>
      </trkpt>
      <trkpt lat="42.43975" lon="0.0494">
        <ele>818.7</ele>
        <time>2016-07-31T08:49:39Z</time>
      </trkpt>
      <trkpt lat="42.43977" lon="0.04944">
        <ele>818.9</ele>
        <time>2016-07-31T08:49:40Z</time>
      </trkpt>
      <trkpt lat="42.43981" lon="0.04947">
        <ele>818.5</ele>
        <time>2016-07-31T08:49:41Z</time>
      </trkpt>
      <trkpt lat="42.43985" lon="0.0495">
        <ele>818</ele>
        <time>2016-07-31T08:49:42Z</time>
      </trkpt>
      <trkpt lat="42.43988" lon="0.04953">
        <ele>817.7</ele>
        <time>2016-07-31T08:49:43Z</time>
      </trkpt>
      <trkpt lat="42.43992" lon="0.04957">
        <ele>817.5</ele>
        <time>2016-07-31T08:49:44Z</time>
      </trkpt>
      <trkpt lat="42.43995" lon="0.04962">
        <ele>817.9</ele>
        <time>2016-07-31T08:49:45Z</time>
      </trkpt>
      <trkpt lat="42.43998" lon="0.04965">
        <ele>818.1</ele>
        <time>2016-07-31T08:49:46Z</time>
      </trkpt>
      <trkpt lat="42.44" lon="0.04968">
        <ele>818.3</ele>
        <time>2016-07-31T08:49:47Z</time>
      </trkpt>
      <trkpt lat="42.44004" lon="0.0497">
        <ele>817.6</ele>
        <time>2016-07-31T08:49:49Z</time>
      </trkpt>
      <trkpt lat="42.44008" lon="0.04971">
        <ele>816.6</ele>
        <time>2016-07-31T08:49:50Z</time>
      </trkpt>
      <trkpt lat="42.44012" lon="0.04972">
        <ele>815</ele>
        <time>2016-07-31T08:49:51Z</time>
      </trkpt>
      <trkpt lat="42.44018" lon="0.04974">
        <ele>813.6</ele>
        <time>2016-07-31T08:49:52Z</time>
      </trkpt>
      <trkpt lat="42.44022" lon="0.04976">
        <ele>812.6</ele>
        <time>2016-07-31T08:49:53Z</time>
      </trkpt>
      <trkpt lat="42.44027" lon="0.04979">
        <ele>811.9</ele>
        <time>2016-07-31T08:49:54Z</time>
      </trkpt>
      <trkpt lat="42.44032" lon="0.04982">
        <ele>811.3</ele>
        <time>2016-07-31T08:49:55Z</time>
      </trkpt>
      <trkpt lat="42.44037" lon="0.04984">
        <ele>810.5</ele>
        <time>2016-07-31T08:49:56Z</time>
      </trkpt>
      <trkpt lat="42.44042" lon="0.04987">
        <ele>809.6</ele>
        <time>2016-07-31T08:49:57Z</time>
      </trkpt>
      <trkpt lat="42.44047" lon="0.0499">
        <ele>809.6</ele>
        <time>2016-07-31T08:49:58Z</time>
      </trkpt>
      <trkpt lat="42.44052" lon="0.04992">
        <ele>809.4</ele>
        <time>2016-07-31T08:49:59Z</time>
      </trkpt>
      <trkpt lat="42.44057" lon="0.04994">
        <ele>809.4</ele>
        <time>2016-07-31T08:50:00Z</time>
      </trkpt>
      <trkpt lat="42.44061" lon="0.04997">
        <ele>809.7</ele>
        <time>2016-07-31T08:50:01Z</time>
      </trkpt>
      <trkpt lat="42.44066" lon="0.05001">
        <ele>810</ele>
        <time>2016-07-31T08:50:02Z</time>
      </trkpt>
      <trkpt lat="42.4407" lon="0.05003">
        <ele>810.2</ele>
        <time>2016-07-31T08:50:03Z</time>
      </trkpt>
      <trkpt lat="42.44073" lon="0.05006">
        <ele>810.3</ele>
        <time>2016-07-31T08:50:04Z</time>
      </trkpt>
      <trkpt lat="42.44078" lon="0.05007">
        <ele>810</ele>
        <time>2016-07-31T08:50:05Z</time>
      </trkpt>
      <trkpt lat="42.44082" lon="0.05008">
        <ele>809.4</ele>
        <time>2016-07-31T08:50:06Z</time>
      </trkpt>
      <trkpt lat="42.44087" lon="0.05008">
        <ele>808.4</ele>
        <time>2016-07-31T08:50:07Z</time>
      </trkpt>
      <trkpt lat="42.44092" lon="0.05008">
        <ele>807</ele>
        <time>2016-07-31T08:50:08Z</time>
      </trkpt>
      <trkpt lat="42.44096" lon="0.05007">
        <ele>805.6</ele>
        <time>2016-07-31T08:50:09Z</time>
      </trkpt>
      <trkpt lat="42.441" lon="0.05007">
        <ele>804.6</ele>
        <time>2016-07-31T08:50:10Z</time>
      </trkpt>
      <trkpt lat="42.44104" lon="0.05008">
        <ele>804</ele>
        <time>2016-07-31T08:50:11Z</time>
      </trkpt>
      <trkpt lat="42.44107" lon="0.05009">
        <ele>803.8</ele>
        <time>2016-07-31T08:50:12Z</time>
      </trkpt>
      <trkpt lat="42.4411" lon="0.05011">
        <ele>803.7</ele>
        <time>2016-07-31T08:50:13Z</time>
      </trkpt>
      <trkpt lat="42.44113" lon="0.05012">
        <ele>803.5</ele>
        <time>2016-07-31T08:50:14Z</time>
      </trkpt>
      <trkpt lat="42.44116" lon="0.05013">
        <ele>803.3</ele>
        <time>2016-07-31T08:50:15Z</time>
      </trkpt>
      <trkpt lat="42.44119" lon="0.05014">
        <ele>803.3</ele>
        <time>2016-07-31T08:50:16Z</time>
      </trkpt>
      <trkpt lat="42.44121" lon="0.05017">
        <ele>803.7</ele>
        <time>2016-07-31T08:50:17Z</time>
      </trkpt>
      <trkpt lat="42.44124" lon="0.05019">
        <ele>804.2</ele>
        <time>2016-07-31T08:50:18Z</time>
      </trkpt>
      <trkpt lat="42.44127" lon="0.05022">
        <ele>805</ele>
        <time>2016-07-31T08:50:20Z</time>
      </trkpt>
      <trkpt lat="42.44131" lon="0.05025">
        <ele>805</ele>
        <time>2016-07-31T08:50:22Z</time>
      </trkpt>
      <trkpt lat="42.44134" lon="0.05027">
        <ele>805.3</ele>
        <time>2016-07-31T08:50:23Z</time>
      </trkpt>
      <trkpt lat="42.44137" lon="0.0503">
        <ele>805.8</ele>
        <time>2016-07-31T08:50:24Z</time>
      </trkpt>
      <trkpt lat="42.44139" lon="0.05033">
        <ele>806.5</ele>
        <time>2016-07-31T08:50:25Z</time>
      </trkpt>
      <trkpt lat="42.44141" lon="0.05036">
        <ele>807.5</ele>
        <time>2016-07-31T08:50:26Z</time>
      </trkpt>
      <trkpt lat="42.44143" lon="0.05039">
        <ele>808.4</ele>
        <time>2016-07-31T08:50:27Z</time>
      </trkpt>
      <trkpt lat="42.44145" lon="0.05042">
        <ele>809.2</ele>
        <time>2016-07-31T08:50:28Z</time>
      </trkpt>
      <trkpt lat="42.44149" lon="0.05047">
        <ele>810.3</ele>
        <time>2016-07-31T08:50:30Z</time>
      </trkpt>
      <trkpt lat="42.44153" lon="0.0505">
        <ele>810.5</ele>
        <time>2016-07-31T08:50:32Z</time>
      </trkpt>
      <trkpt lat="42.44158" lon="0.05054">
        <ele>811.1</ele>
        <time>2016-07-31T08:50:34Z</time>
      </trkpt>
      <trkpt lat="42.4416" lon="0.05056">
        <ele>811.5</ele>
        <time>2016-07-31T08:50:35Z</time>
      </trkpt>
      <trkpt lat="42.44163" lon="0.05058">
        <ele>811.6</ele>
        <time>2016-07-31T08:50:36Z</time>
      </trkpt>
      <trkpt lat="42.44166" lon="0.05059">
        <ele>811.6</ele>
        <time>2016-07-31T08:50:37Z</time>
      </trkpt>
      <trkpt lat="42.44169" lon="0.05061">
        <ele>811.7</ele>
        <time>2016-07-31T08:50:38Z</time>
      </trkpt>
      <trkpt lat="42.44173" lon="0.05065">
        <ele>812.8</ele>
        <time>2016-07-31T08:50:40Z</time>
      </trkpt>
      <trkpt lat="42.44176" lon="0.05069">
        <ele>813.8</ele>
        <time>2016-07-31T08:50:42Z</time>
      </trkpt>
      <trkpt lat="42.44181" lon="0.05073">
        <ele>814.2</ele>
        <time>2016-07-31T08:50:44Z</time>
      </trkpt>
      <trkpt lat="42.44184" lon="0.05074">
        <ele>814.2</ele>
        <time>2016-07-31T08:50:45Z</time>
      </trkpt>
      <trkpt lat="42.44189" lon="0.05077">
        <ele>814.6</ele>
        <time>2016-07-31T08:50:47Z</time>
      </trkpt>
      <trkpt lat="42.44193" lon="0.05081">
        <ele>815.3</ele>
        <time>2016-07-31T08:50:49Z</time>
      </trkpt>
      <trkpt lat="42.44196" lon="0.05083">
        <ele>815.6</ele>
        <time>2016-07-31T08:50:50Z</time>
      </trkpt>
      <trkpt lat="42.44199" lon="0.05084">
        <ele>815.7</ele>
        <time>2016-07-31T08:50:51Z</time>
      </trkpt>
      <trkpt lat="42.44202" lon="0.05086">
        <ele>815.7</ele>
        <time>2016-07-31T08:50:52Z</time>
      </trkpt>
      <trkpt lat="42.44205" lon="0.05087">
        <ele>815.7</ele>
        <time>2016-07-31T08:50:53Z</time>
      </trkpt>
      <trkpt lat="42.44207" lon="0.05089">
        <ele>815.7</ele>
        <time>2016-07-31T08:50:54Z</time>
      </trkpt>
      <trkpt lat="42.4421" lon="0.0509">
        <ele>815.6</ele>
        <time>2016-07-31T08:50:55Z</time>
      </trkpt>
      <trkpt lat="42.44213" lon="0.05092">
        <ele>815.4</ele>
        <time>2016-07-31T08:50:56Z</time>
      </trkpt>
      <trkpt lat="42.44217" lon="0.05094">
        <ele>815.3</ele>
        <time>2016-07-31T08:50:57Z</time>
      </trkpt>
      <trkpt lat="42.4422" lon="0.05096">
        <ele>815.3</ele>
        <time>2016-07-31T08:50:58Z</time>
      </trkpt>
      <trkpt lat="42.44223" lon="0.05098">
        <ele>815.3</ele>
        <time>2016-07-31T08:50:59Z</time>
      </trkpt>
      <trkpt lat="42.44226" lon="0.05099">
        <ele>815.2</ele>
        <time>2016-07-31T08:51:00Z</time>
      </trkpt>
      <trkpt lat="42.44229" lon="0.051">
        <ele>814.7</ele>
        <time>2016-07-31T08:51:01Z</time>
      </trkpt>
      <trkpt lat="42.44232" lon="0.05101">
        <ele>814</ele>
        <time>2016-07-31T08:51:02Z</time>
      </trkpt>
      <trkpt lat="42.44236" lon="0.05103">
        <ele>813.6</ele>
        <time>2016-07-31T08:51:03Z</time>
      </trkpt>
      <trkpt lat="42.44239" lon="0.05105">
        <ele>813.5</ele>
        <time>2016-07-31T08:51:04Z</time>
      </trkpt>
      <trkpt lat="42.44243" lon="0.05108">
        <ele>813.5</ele>
        <time>2016-07-31T08:51:05Z</time>
      </trkpt>
      <trkpt lat="42.44246" lon="0.0511">
        <ele>813.4</ele>
        <time>2016-07-31T08:51:06Z</time>
      </trkpt>
      <trkpt lat="42.44249" lon="0.05112">
        <ele>813.4</ele>
        <time>2016-07-31T08:51:07Z</time>
      </trkpt>
      <trkpt lat="42.44252" lon="0.05113">
        <ele>813.5</ele>
        <time>2016-07-31T08:51:08Z</time>
      </trkpt>
      <trkpt lat="42.44256" lon="0.05118">
        <ele>814.2</ele>
        <time>2016-07-31T08:51:10Z</time>
      </trkpt>
      <trkpt lat="42.44259" lon="0.05122">
        <ele>815.5</ele>
        <time>2016-07-31T08:51:12Z</time>
      </trkpt>
      <trkpt lat="42.44261" lon="0.05126">
        <ele>816.3</ele>
        <time>2016-07-31T08:51:13Z</time>
      </trkpt>
      <trkpt lat="42.44263" lon="0.05129">
        <ele>816.8</ele>
        <time>2016-07-31T08:51:14Z</time>
      </trkpt>
      <trkpt lat="42.44265" lon="0.05133">
        <ele>817.4</ele>
        <time>2016-07-31T08:51:15Z</time>
      </trkpt>
      <trkpt lat="42.44267" lon="0.05137">
        <ele>818.1</ele>
        <time>2016-07-31T08:51:16Z</time>
      </trkpt>
      <trkpt lat="42.44269" lon="0.05141">
        <ele>818.9</ele>
        <time>2016-07-31T08:51:17Z</time>
      </trkpt>
      <trkpt lat="42.44271" lon="0.05144">
        <ele>819.6</ele>
        <time>2016-07-31T08:51:18Z</time>
      </trkpt>
      <trkpt lat="42.44273" lon="0.05148">
        <ele>820.2</ele>
        <time>2016-07-31T08:51:19Z</time>
      </trkpt>
      <trkpt lat="42.44274" lon="0.05151">
        <ele>820.8</ele>
        <time>2016-07-31T08:51:20Z</time>
      </trkpt>
      <trkpt lat="42.44276" lon="0.05154">
        <ele>821.1</ele>
        <time>2016-07-31T08:51:21Z</time>
      </trkpt>
      <trkpt lat="42.4428" lon="0.0516">
        <ele>821.6</ele>
        <time>2016-07-31T08:51:23Z</time>
      </trkpt>
      <trkpt lat="42.44282" lon="0.05163">
        <ele>821.8</ele>
        <time>2016-07-31T08:51:24Z</time>
      </trkpt>
      <trkpt lat="42.44285" lon="0.05167">
        <ele>822</ele>
        <time>2016-07-31T08:51:25Z</time>
      </trkpt>
      <trkpt lat="42.44288" lon="0.05171">
        <ele>822.2</ele>
        <time>2016-07-31T08:51:26Z</time>
      </trkpt>
      <trkpt lat="42.44291" lon="0.05175">
        <ele>822.5</ele>
        <time>2016-07-31T08:51:27Z</time>
      </trkpt>
      <trkpt lat="42.44294" lon="0.05179">
        <ele>822.5</ele>
        <time>2016-07-31T08:51:28Z</time>
      </trkpt>
      <trkpt lat="42.44297" lon="0.05183">
        <ele>822</ele>
        <time>2016-07-31T08:51:29Z</time>
      </trkpt>
      <trkpt lat="42.443" lon="0.05186">
        <ele>821.1</ele>
        <time>2016-07-31T08:51:30Z</time>
      </trkpt>
      <trkpt lat="42.44304" lon="0.05189">
        <ele>820</ele>
        <time>2016-07-31T08:51:31Z</time>
      </trkpt>
      <trkpt lat="42.44307" lon="0.05191">
        <ele>818.9</ele>
        <time>2016-07-31T08:51:32Z</time>
      </trkpt>
      <trkpt lat="42.4431" lon="0.05194">
        <ele>818.2</ele>
        <time>2016-07-31T08:51:33Z</time>
      </trkpt>
      <trkpt lat="42.44313" lon="0.05198">
        <ele>817.7</ele>
        <time>2016-07-31T08:51:34Z</time>
      </trkpt>
      <trkpt lat="42.44316" lon="0.05202">
        <ele>817.6</ele>
        <time>2016-07-31T08:51:35Z</time>
      </trkpt>
      <trkpt lat="42.44319" lon="0.05207">
        <ele>817.4</ele>
        <time>2016-07-31T08:51:36Z</time>
      </trkpt>
      <trkpt lat="42.44322" lon="0.05212">
        <ele>817</ele>
        <time>2016-07-31T08:51:37Z</time>
      </trkpt>
      <trkpt lat="42.44325" lon="0.05216">
        <ele>816.7</ele>
        <time>2016-07-31T08:51:38Z</time>
      </trkpt>
      <trkpt lat="42.44328" lon="0.05221">
        <ele>816.6</ele>
        <time>2016-07-31T08:51:39Z</time>
      </trkpt>
      <trkpt lat="42.4433" lon="0.05224">
        <ele>816.6</ele>
        <time>2016-07-31T08:51:40Z</time>
      </trkpt>
      <trkpt lat="42.44332" lon="0.05228">
        <ele>816.6</ele>
        <time>2016-07-31T08:51:41Z</time>
      </trkpt>
      <trkpt lat="42.44335" lon="0.05231">
        <ele>816.5</ele>
        <time>2016-07-31T08:51:42Z</time>
      </trkpt>
      <trkpt lat="42.44339" lon="0.05236">
        <ele>815.5</ele>
        <time>2016-07-31T08:51:44Z</time>
      </trkpt>
      <trkpt lat="42.44342" lon="0.05238">
        <ele>814.7</ele>
        <time>2016-07-31T08:51:45Z</time>
      </trkpt>
      <trkpt lat="42.44346" lon="0.05241">
        <ele>813.7</ele>
        <time>2016-07-31T08:51:46Z</time>
      </trkpt>
      <trkpt lat="42.44348" lon="0.05243">
        <ele>813.2</ele>
        <time>2016-07-31T08:51:47Z</time>
      </trkpt>
      <trkpt lat="42.44351" lon="0.05248">
        <ele>813.1</ele>
        <time>2016-07-31T08:51:49Z</time>
      </trkpt>
      <trkpt lat="42.44353" lon="0.05252">
        <ele>813.5</ele>
        <time>2016-07-31T08:51:51Z</time>
      </trkpt>
      <trkpt lat="42.44357" lon="0.05254">
        <ele>812</ele>
        <time>2016-07-31T08:51:53Z</time>
      </trkpt>
      <trkpt lat="42.44361" lon="0.05257">
        <ele>810.6</ele>
        <time>2016-07-31T08:51:55Z</time>
      </trkpt>
      <trkpt lat="42.44364" lon="0.05262">
        <ele>810.8</ele>
        <time>2016-07-31T08:51:57Z</time>
      </trkpt>
      <trkpt lat="42.44366" lon="0.05265">
        <ele>810.9</ele>
        <time>2016-07-31T08:51:58Z</time>
      </trkpt>
      <trkpt lat="42.44368" lon="0.05269">
        <ele>810.8</ele>
        <time>2016-07-31T08:51:59Z</time>
      </trkpt>
      <trkpt lat="42.4437" lon="0.05271">
        <ele>810.4</ele>
        <time>2016-07-31T08:52:00Z</time>
      </trkpt>
      <trkpt lat="42.44373" lon="0.05273">
        <ele>809.6</ele>
        <time>2016-07-31T08:52:01Z</time>
      </trkpt>
      <trkpt lat="42.44377" lon="0.05276">
        <ele>808.2</ele>
        <time>2016-07-31T08:52:03Z</time>
      </trkpt>
      <trkpt lat="42.4438" lon="0.05279">
        <ele>807.1</ele>
        <time>2016-07-31T08:52:05Z</time>
      </trkpt>
      <trkpt lat="42.44384" lon="0.05282">
        <ele>806</ele>
        <time>2016-07-31T08:52:07Z</time>
      </trkpt>
      <trkpt lat="42.44386" lon="0.05285">
        <ele>805.5</ele>
        <time>2016-07-31T08:52:08Z</time>
      </trkpt>
      <trkpt lat="42.44388" lon="0.05288">
        <ele>805.5</ele>
        <time>2016-07-31T08:52:09Z</time>
      </trkpt>
      <trkpt lat="42.44389" lon="0.05291">
        <ele>805.6</ele>
        <time>2016-07-31T08:52:10Z</time>
      </trkpt>
      <trkpt lat="42.44391" lon="0.05295">
        <ele>805.3</ele>
        <time>2016-07-31T08:52:11Z</time>
      </trkpt>
      <trkpt lat="42.44393" lon="0.05298">
        <ele>805</ele>
        <time>2016-07-31T08:52:12Z</time>
      </trkpt>
      <trkpt lat="42.44394" lon="0.05303">
        <ele>805</ele>
        <time>2016-07-31T08:52:13Z</time>
      </trkpt>
      <trkpt lat="42.44395" lon="0.05307">
        <ele>805.1</ele>
        <time>2016-07-31T08:52:14Z</time>
      </trkpt>
      <trkpt lat="42.44396" lon="0.0531">
        <ele>805.6</ele>
        <time>2016-07-31T08:52:15Z</time>
      </trkpt>
      <trkpt lat="42.44397" lon="0.05316">
        <ele>806.2</ele>
        <time>2016-07-31T08:52:17Z</time>
      </trkpt>
      <trkpt lat="42.444" lon="0.05322">
        <ele>805.3</ele>
        <time>2016-07-31T08:52:19Z</time>
      </trkpt>
      <trkpt lat="42.44402" lon="0.05325">
        <ele>804.5</ele>
        <time>2016-07-31T08:52:20Z</time>
      </trkpt>
      <trkpt lat="42.44405" lon="0.05329">
        <ele>803.5</ele>
        <time>2016-07-31T08:52:21Z</time>
      </trkpt>
      <trkpt lat="42.44407" lon="0.05333">
        <ele>802.4</ele>
        <time>2016-07-31T08:52:22Z</time>
      </trkpt>
      <trkpt lat="42.44409" lon="0.05336">
        <ele>801.9</ele>
        <time>2016-07-31T08:52:23Z</time>
      </trkpt>
      <trkpt lat="42.44411" lon="0.05341">
        <ele>802</ele>
        <time>2016-07-31T08:52:25Z</time>
      </trkpt>
      <trkpt lat="42.44412" lon="0.05348">
        <ele>802.5</ele>
        <time>2016-07-31T08:52:27Z</time>
      </trkpt>
      <trkpt lat="42.44412" lon="0.05353">
        <ele>803.2</ele>
        <time>2016-07-31T08:52:28Z</time>
      </trkpt>
      <trkpt lat="42.44413" lon="0.05358">
        <ele>803.9</ele>
        <time>2016-07-31T08:52:29Z</time>
      </trkpt>
      <trkpt lat="42.44413" lon="0.05363">
        <ele>804.5</ele>
        <time>2016-07-31T08:52:30Z</time>
      </trkpt>
      <trkpt lat="42.44415" lon="0.05369">
        <ele>804.7</ele>
        <time>2016-07-31T08:52:31Z</time>
      </trkpt>
      <trkpt lat="42.44417" lon="0.05374">
        <ele>804.2</ele>
        <time>2016-07-31T08:52:32Z</time>
      </trkpt>
      <trkpt lat="42.44418" lon="0.05377">
        <ele>803.7</ele>
        <time>2016-07-31T08:52:33Z</time>
      </trkpt>
      <trkpt lat="42.44419" lon="0.05381">
        <ele>803.1</ele>
        <time>2016-07-31T08:52:35Z</time>
      </trkpt>
      <trkpt lat="42.44421" lon="0.05384">
        <ele>802.5</ele>
        <time>2016-07-31T08:52:37Z</time>
      </trkpt>
      <trkpt lat="42.44422" lon="0.05389">
        <ele>802.2</ele>
        <time>2016-07-31T08:52:40Z</time>
      </trkpt>
      <trkpt lat="42.44421" lon="0.05394">
        <ele>802.9</ele>
        <time>2016-07-31T08:52:42Z</time>
      </trkpt>
      <trkpt lat="42.44422" lon="0.05399">
        <ele>802.8</ele>
        <time>2016-07-31T08:52:44Z</time>
      </trkpt>
      <trkpt lat="42.44425" lon="0.05399">
        <ele>800.6</ele>
        <time>2016-07-31T08:52:46Z</time>
      </trkpt>
      <trkpt lat="42.44429" lon="0.05394">
        <ele>797.2</ele>
        <time>2016-07-31T08:52:48Z</time>
      </trkpt>
      <trkpt lat="42.44431" lon="0.05392">
        <ele>795.3</ele>
        <time>2016-07-31T08:52:50Z</time>
      </trkpt>
      <trkpt lat="42.44434" lon="0.05394">
        <ele>793.6</ele>
        <time>2016-07-31T08:52:52Z</time>
      </trkpt>
      <trkpt lat="42.44435" lon="0.05398">
        <ele>793.2</ele>
        <time>2016-07-31T08:52:53Z</time>
      </trkpt>
      <trkpt lat="42.44435" lon="0.05403">
        <ele>793.6</ele>
        <time>2016-07-31T08:52:54Z</time>
      </trkpt>
      <trkpt lat="42.44434" lon="0.05408">
        <ele>794.5</ele>
        <time>2016-07-31T08:52:55Z</time>
      </trkpt>
      <trkpt lat="42.44433" lon="0.05413">
        <ele>795.7</ele>
        <time>2016-07-31T08:52:56Z</time>
      </trkpt>
      <trkpt lat="42.44432" lon="0.05419">
        <ele>796.7</ele>
        <time>2016-07-31T08:52:57Z</time>
      </trkpt>
      <trkpt lat="42.44432" lon="0.05424">
        <ele>797.4</ele>
        <time>2016-07-31T08:52:58Z</time>
      </trkpt>
      <trkpt lat="42.44431" lon="0.05429">
        <ele>798.2</ele>
        <time>2016-07-31T08:52:59Z</time>
      </trkpt>
      <trkpt lat="42.44431" lon="0.05433">
        <ele>798.9</ele>
        <time>2016-07-31T08:53:00Z</time>
      </trkpt>
      <trkpt lat="42.44431" lon="0.05437">
        <ele>799.3</ele>
        <time>2016-07-31T08:53:01Z</time>
      </trkpt>
      <trkpt lat="42.44431" lon="0.05442">
        <ele>799.2</ele>
        <time>2016-07-31T08:53:02Z</time>
      </trkpt>
      <trkpt lat="42.44433" lon="0.05447">
        <ele>798.4</ele>
        <time>2016-07-31T08:53:04Z</time>
      </trkpt>
      <trkpt lat="42.44435" lon="0.05452">
        <ele>797.2</ele>
        <time>2016-07-31T08:53:06Z</time>
      </trkpt>
      <trkpt lat="42.44436" lon="0.05456">
        <ele>796.2</ele>
        <time>2016-07-31T08:53:07Z</time>
      </trkpt>
      <trkpt lat="42.44438" lon="0.05459">
        <ele>795.2</ele>
        <time>2016-07-31T08:53:08Z</time>
      </trkpt>
      <trkpt lat="42.44439" lon="0.05463">
        <ele>794.6</ele>
        <time>2016-07-31T08:53:09Z</time>
      </trkpt>
      <trkpt lat="42.44441" lon="0.05466">
        <ele>794</ele>
        <time>2016-07-31T08:53:10Z</time>
      </trkpt>
      <trkpt lat="42.44443" lon="0.05472">
        <ele>793.2</ele>
        <time>2016-07-31T08:53:12Z</time>
      </trkpt>
      <trkpt lat="42.44444" lon="0.05477">
        <ele>792.7</ele>
        <time>2016-07-31T08:53:14Z</time>
      </trkpt>
      <trkpt lat="42.44446" lon="0.05481">
        <ele>792.1</ele>
        <time>2016-07-31T08:53:15Z</time>
      </trkpt>
      <trkpt lat="42.44447" lon="0.05484">
        <ele>791.2</ele>
        <time>2016-07-31T08:53:16Z</time>
      </trkpt>
      <trkpt lat="42.44451" lon="0.05491">
        <ele>788.8</ele>
        <time>2016-07-31T08:53:18Z</time>
      </trkpt>
      <trkpt lat="42.44455" lon="0.05495">
        <ele>786.6</ele>
        <time>2016-07-31T08:53:19Z</time>
      </trkpt>
      <trkpt lat="42.44459" lon="0.055">
        <ele>784.3</ele>
        <time>2016-07-31T08:53:20Z</time>
      </trkpt>
      <trkpt lat="42.44462" lon="0.05505">
        <ele>782</ele>
        <time>2016-07-31T08:53:21Z</time>
      </trkpt>
      <trkpt lat="42.44465" lon="0.05508">
        <ele>780.5</ele>
        <time>2016-07-31T08:53:22Z</time>
      </trkpt>
      <trkpt lat="42.44467" lon="0.05511">
        <ele>779</ele>
        <time>2016-07-31T08:53:23Z</time>
      </trkpt>
      <trkpt lat="42.44469" lon="0.05514">
        <ele>777.4</ele>
        <time>2016-07-31T08:53:24Z</time>
      </trkpt>
      <trkpt lat="42.44472" lon="0.05518">
        <ele>775.9</ele>
        <time>2016-07-31T08:53:25Z</time>
      </trkpt>
      <trkpt lat="42.44474" lon="0.05523">
        <ele>775</ele>
        <time>2016-07-31T08:53:26Z</time>
      </trkpt>
      <trkpt lat="42.44476" lon="0.05527">
        <ele>774.1</ele>
        <time>2016-07-31T08:53:27Z</time>
      </trkpt>
      <trkpt lat="42.44479" lon="0.05533">
        <ele>772.1</ele>
        <time>2016-07-31T08:53:29Z</time>
      </trkpt>
      <trkpt lat="42.44482" lon="0.05537">
        <ele>770.3</ele>
        <time>2016-07-31T08:53:30Z</time>
      </trkpt>
      <trkpt lat="42.44485" lon="0.05542">
        <ele>768.9</ele>
        <time>2016-07-31T08:53:31Z</time>
      </trkpt>
      <trkpt lat="42.44487" lon="0.05547">
        <ele>767.7</ele>
        <time>2016-07-31T08:53:32Z</time>
      </trkpt>
      <trkpt lat="42.44489" lon="0.05553">
        <ele>766.8</ele>
        <time>2016-07-31T08:53:33Z</time>
      </trkpt>
      <trkpt lat="42.44492" lon="0.05558">
        <ele>765.9</ele>
        <time>2016-07-31T08:53:34Z</time>
      </trkpt>
      <trkpt lat="42.44494" lon="0.05563">
        <ele>764.9</ele>
        <time>2016-07-31T08:53:35Z</time>
      </trkpt>
      <trkpt lat="42.44496" lon="0.05568">
        <ele>763.9</ele>
        <time>2016-07-31T08:53:36Z</time>
      </trkpt>
      <trkpt lat="42.44499" lon="0.05572">
        <ele>762.7</ele>
        <time>2016-07-31T08:53:37Z</time>
      </trkpt>
      <trkpt lat="42.44502" lon="0.05577">
        <ele>761.1</ele>
        <time>2016-07-31T08:53:38Z</time>
      </trkpt>
      <trkpt lat="42.44505" lon="0.05581">
        <ele>759.4</ele>
        <time>2016-07-31T08:53:39Z</time>
      </trkpt>
      <trkpt lat="42.44509" lon="0.05585">
        <ele>757.6</ele>
        <time>2016-07-31T08:53:40Z</time>
      </trkpt>
      <trkpt lat="42.44512" lon="0.0559">
        <ele>756.2</ele>
        <time>2016-07-31T08:53:41Z</time>
      </trkpt>
      <trkpt lat="42.44515" lon="0.05595">
        <ele>754.8</ele>
        <time>2016-07-31T08:53:42Z</time>
      </trkpt>
      <trkpt lat="42.44518" lon="0.05599">
        <ele>753.5</ele>
        <time>2016-07-31T08:53:43Z</time>
      </trkpt>
      <trkpt lat="42.44521" lon="0.05604">
        <ele>752.2</ele>
        <time>2016-07-31T08:53:44Z</time>
      </trkpt>
      <trkpt lat="42.44523" lon="0.0561">
        <ele>751.8</ele>
        <time>2016-07-31T08:53:45Z</time>
      </trkpt>
      <trkpt lat="42.44525" lon="0.05616">
        <ele>752</ele>
        <time>2016-07-31T08:53:46Z</time>
      </trkpt>
      <trkpt lat="42.44526" lon="0.05623">
        <ele>752.6</ele>
        <time>2016-07-31T08:53:47Z</time>
      </trkpt>
      <trkpt lat="42.44527" lon="0.05628">
        <ele>752.5</ele>
        <time>2016-07-31T08:53:48Z</time>
      </trkpt>
      <trkpt lat="42.44528" lon="0.05632">
        <ele>751.9</ele>
        <time>2016-07-31T08:53:49Z</time>
      </trkpt>
      <trkpt lat="42.44529" lon="0.05636">
        <ele>751.4</ele>
        <time>2016-07-31T08:53:50Z</time>
      </trkpt>
      <trkpt lat="42.44531" lon="0.0564">
        <ele>750.6</ele>
        <time>2016-07-31T08:53:51Z</time>
      </trkpt>
      <trkpt lat="42.44532" lon="0.05644">
        <ele>749.6</ele>
        <time>2016-07-31T08:53:52Z</time>
      </trkpt>
      <trkpt lat="42.44534" lon="0.05649">
        <ele>749.1</ele>
        <time>2016-07-31T08:53:53Z</time>
      </trkpt>
      <trkpt lat="42.44534" lon="0.05653">
        <ele>749.2</ele>
        <time>2016-07-31T08:53:54Z</time>
      </trkpt>
      <trkpt lat="42.44533" lon="0.05658">
        <ele>749.8</ele>
        <time>2016-07-31T08:53:55Z</time>
      </trkpt>
      <trkpt lat="42.44533" lon="0.05662">
        <ele>750.6</ele>
        <time>2016-07-31T08:53:56Z</time>
      </trkpt>
      <trkpt lat="42.44532" lon="0.05667">
        <ele>751</ele>
        <time>2016-07-31T08:53:57Z</time>
      </trkpt>
      <trkpt lat="42.44532" lon="0.05672">
        <ele>751.5</ele>
        <time>2016-07-31T08:53:58Z</time>
      </trkpt>
      <trkpt lat="42.44532" lon="0.05676">
        <ele>751.8</ele>
        <time>2016-07-31T08:53:59Z</time>
      </trkpt>
      <trkpt lat="42.44532" lon="0.0568">
        <ele>752.1</ele>
        <time>2016-07-31T08:54:00Z</time>
      </trkpt>
      <trkpt lat="42.44531" lon="0.05686">
        <ele>753.2</ele>
        <time>2016-07-31T08:54:02Z</time>
      </trkpt>
      <trkpt lat="42.4453" lon="0.05691">
        <ele>754.1</ele>
        <time>2016-07-31T08:54:04Z</time>
      </trkpt>
      <trkpt lat="42.4453" lon="0.05697">
        <ele>754.1</ele>
        <time>2016-07-31T08:54:06Z</time>
      </trkpt>
      <trkpt lat="42.44531" lon="0.057">
        <ele>753.9</ele>
        <time>2016-07-31T08:54:07Z</time>
      </trkpt>
      <trkpt lat="42.44532" lon="0.05706">
        <ele>753.3</ele>
        <time>2016-07-31T08:54:09Z</time>
      </trkpt>
      <trkpt lat="42.44534" lon="0.05713">
        <ele>751.9</ele>
        <time>2016-07-31T08:54:11Z</time>
      </trkpt>
      <trkpt lat="42.44534" lon="0.05718">
        <ele>751.1</ele>
        <time>2016-07-31T08:54:12Z</time>
      </trkpt>
      <trkpt lat="42.44533" lon="0.05723">
        <ele>750.5</ele>
        <time>2016-07-31T08:54:13Z</time>
      </trkpt>
      <trkpt lat="42.44532" lon="0.0573">
        <ele>750</ele>
        <time>2016-07-31T08:54:14Z</time>
      </trkpt>
      <trkpt lat="42.4453" lon="0.05738">
        <ele>749.9</ele>
        <time>2016-07-31T08:54:15Z</time>
      </trkpt>
      <trkpt lat="42.44529" lon="0.05745">
        <ele>749.8</ele>
        <time>2016-07-31T08:54:16Z</time>
      </trkpt>
      <trkpt lat="42.44527" lon="0.05753">
        <ele>749.5</ele>
        <time>2016-07-31T08:54:17Z</time>
      </trkpt>
      <trkpt lat="42.44525" lon="0.05761">
        <ele>749.3</ele>
        <time>2016-07-31T08:54:18Z</time>
      </trkpt>
      <trkpt lat="42.44524" lon="0.0577">
        <ele>749</ele>
        <time>2016-07-31T08:54:19Z</time>
      </trkpt>
      <trkpt lat="42.44522" lon="0.05777">
        <ele>748.9</ele>
        <time>2016-07-31T08:54:20Z</time>
      </trkpt>
      <trkpt lat="42.4452" lon="0.05785">
        <ele>748.8</ele>
        <time>2016-07-31T08:54:21Z</time>
      </trkpt>
      <trkpt lat="42.44518" lon="0.05792">
        <ele>748.8</ele>
        <time>2016-07-31T08:54:22Z</time>
      </trkpt>
      <trkpt lat="42.44517" lon="0.05798">
        <ele>748.1</ele>
        <time>2016-07-31T08:54:23Z</time>
      </trkpt>
      <trkpt lat="42.44514" lon="0.05805">
        <ele>747.8</ele>
        <time>2016-07-31T08:54:24Z</time>
      </trkpt>
      <trkpt lat="42.44512" lon="0.0581">
        <ele>747.9</ele>
        <time>2016-07-31T08:54:25Z</time>
      </trkpt>
      <trkpt lat="42.4451" lon="0.05814">
        <ele>748.3</ele>
        <time>2016-07-31T08:54:26Z</time>
      </trkpt>
      <trkpt lat="42.44507" lon="0.05818">
        <ele>749</ele>
        <time>2016-07-31T08:54:27Z</time>
      </trkpt>
      <trkpt lat="42.44505" lon="0.0582">
        <ele>749.9</ele>
        <time>2016-07-31T08:54:28Z</time>
      </trkpt>
      <trkpt lat="42.44501" lon="0.05827">
        <ele>750.9</ele>
        <time>2016-07-31T08:54:30Z</time>
      </trkpt>
      <trkpt lat="42.445" lon="0.05831">
        <ele>750.7</ele>
        <time>2016-07-31T08:54:31Z</time>
      </trkpt>
      <trkpt lat="42.44499" lon="0.05836">
        <ele>750.4</ele>
        <time>2016-07-31T08:54:32Z</time>
      </trkpt>
      <trkpt lat="42.44498" lon="0.0584">
        <ele>750</ele>
        <time>2016-07-31T08:54:33Z</time>
      </trkpt>
      <trkpt lat="42.44497" lon="0.05845">
        <ele>749.5</ele>
        <time>2016-07-31T08:54:34Z</time>
      </trkpt>
      <trkpt lat="42.44495" lon="0.0585">
        <ele>749.1</ele>
        <time>2016-07-31T08:54:35Z</time>
      </trkpt>
      <trkpt lat="42.44495" lon="0.05854">
        <ele>748.8</ele>
        <time>2016-07-31T08:54:36Z</time>
      </trkpt>
      <trkpt lat="42.44493" lon="0.05859">
        <ele>748.6</ele>
        <time>2016-07-31T08:54:38Z</time>
      </trkpt>
      <trkpt lat="42.44492" lon="0.05865">
        <ele>748</ele>
        <time>2016-07-31T08:54:40Z</time>
      </trkpt>
      <trkpt lat="42.44492" lon="0.0587">
        <ele>746.6</ele>
        <time>2016-07-31T08:54:42Z</time>
      </trkpt>
      <trkpt lat="42.4449" lon="0.05874">
        <ele>747.3</ele>
        <time>2016-07-31T08:55:18Z</time>
      </trkpt>
      <trkpt lat="42.44489" lon="0.05878">
        <ele>747.1</ele>
        <time>2016-07-31T08:55:19Z</time>
      </trkpt>
      <trkpt lat="42.44487" lon="0.05881">
        <ele>746.9</ele>
        <time>2016-07-31T08:55:20Z</time>
      </trkpt>
      <trkpt lat="42.44485" lon="0.05884">
        <ele>747.2</ele>
        <time>2016-07-31T08:55:22Z</time>
      </trkpt>
      <trkpt lat="42.44483" lon="0.05886">
        <ele>748.2</ele>
        <time>2016-07-31T08:55:24Z</time>
      </trkpt>
      <trkpt lat="42.44487" lon="0.05887">
        <ele>745</ele>
        <time>2016-07-31T08:55:31Z</time>
      </trkpt>
      <trkpt lat="42.4449" lon="0.05886">
        <ele>742.6</ele>
        <time>2016-07-31T08:55:34Z</time>
      </trkpt>
      <trkpt lat="42.44491" lon="0.0589">
        <ele>740.6</ele>
        <time>2016-07-31T08:55:37Z</time>
      </trkpt>
      <trkpt lat="42.44488" lon="0.05896">
        <ele>740.1</ele>
        <time>2016-07-31T08:55:39Z</time>
      </trkpt>
      <trkpt lat="42.44487" lon="0.05898">
        <ele>740.3</ele>
        <time>2016-07-31T08:55:40Z</time>
      </trkpt>
      <trkpt lat="42.44483" lon="0.05903">
        <ele>741.2</ele>
        <time>2016-07-31T08:55:42Z</time>
      </trkpt>
      <trkpt lat="42.44481" lon="0.05905">
        <ele>742.1</ele>
        <time>2016-07-31T08:55:44Z</time>
      </trkpt>
      <trkpt lat="42.44479" lon="0.05909">
        <ele>741.2</ele>
        <time>2016-07-31T08:55:46Z</time>
      </trkpt>
      <trkpt lat="42.44479" lon="0.05915">
        <ele>739.3</ele>
        <time>2016-07-31T08:55:48Z</time>
      </trkpt>
      <trkpt lat="42.44479" lon="0.0592">
        <ele>736.9</ele>
        <time>2016-07-31T08:55:53Z</time>
      </trkpt>
      <trkpt lat="42.44479" lon="0.05925">
        <ele>735.3</ele>
        <time>2016-07-31T08:55:56Z</time>
      </trkpt>
      <trkpt lat="42.44478" lon="0.05929">
        <ele>734.1</ele>
        <time>2016-07-31T08:56:13Z</time>
      </trkpt>
      <trkpt lat="42.44477" lon="0.05933">
        <ele>733.5</ele>
        <time>2016-07-31T08:56:21Z</time>
      </trkpt>
      <trkpt lat="42.44478" lon="0.05936">
        <ele>731.7</ele>
        <time>2016-07-31T08:56:28Z</time>
      </trkpt>
      <trkpt lat="42.44478" lon="0.05941">
        <ele>729.3</ele>
        <time>2016-07-31T08:56:32Z</time>
      </trkpt>
      <trkpt lat="42.44479" lon="0.05945">
        <ele>727</ele>
        <time>2016-07-31T08:56:43Z</time>
      </trkpt>
      <trkpt lat="42.44481" lon="0.05947">
        <ele>724.3</ele>
        <time>2016-07-31T08:56:52Z</time>
      </trkpt>
      <trkpt lat="42.44481" lon="0.05951">
        <ele>722.8</ele>
        <time>2016-07-31T08:56:58Z</time>
      </trkpt>
      <trkpt lat="42.4448" lon="0.05955">
        <ele>722.3</ele>
        <time>2016-07-31T08:57:06Z</time>
      </trkpt>
      <trkpt lat="42.44479" lon="0.05958">
        <ele>721.8</ele>
        <time>2016-07-31T08:57:12Z</time>
      </trkpt>
      <trkpt lat="42.44477" lon="0.05961">
        <ele>722.1</ele>
        <time>2016-07-31T08:57:16Z</time>
      </trkpt>
      <trkpt lat="42.44476" lon="0.05968">
        <ele>721.6</ele>
        <time>2016-07-31T08:57:18Z</time>
      </trkpt>
      <trkpt lat="42.44475" lon="0.05972">
        <ele>721</ele>
        <time>2016-07-31T08:57:19Z</time>
      </trkpt>
      <trkpt lat="42.44474" lon="0.05977">
        <ele>720.4</ele>
        <time>2016-07-31T08:57:20Z</time>
      </trkpt>
      <trkpt lat="42.44473" lon="0.05982">
        <ele>720</ele>
        <time>2016-07-31T08:57:21Z</time>
      </trkpt>
      <trkpt lat="42.44472" lon="0.05986">
        <ele>719.6</ele>
        <time>2016-07-31T08:57:22Z</time>
      </trkpt>
      <trkpt lat="42.44471" lon="0.05991">
        <ele>719.4</ele>
        <time>2016-07-31T08:57:23Z</time>
      </trkpt>
      <trkpt lat="42.44469" lon="0.05995">
        <ele>719.4</ele>
        <time>2016-07-31T08:57:24Z</time>
      </trkpt>
      <trkpt lat="42.44468" lon="0.06">
        <ele>719.4</ele>
        <time>2016-07-31T08:57:26Z</time>
      </trkpt>
      <trkpt lat="42.44468" lon="0.06004">
        <ele>718.3</ele>
        <time>2016-07-31T08:57:31Z</time>
      </trkpt>
      <trkpt lat="42.4447" lon="0.06002">
        <ele>716.6</ele>
        <time>2016-07-31T08:57:39Z</time>
      </trkpt>
      <trkpt lat="42.44476" lon="0.05999">
        <ele>713.1</ele>
        <time>2016-07-31T08:57:41Z</time>
      </trkpt>
      <trkpt lat="42.4448" lon="0.05998">
        <ele>710.7</ele>
        <time>2016-07-31T08:57:42Z</time>
      </trkpt>
      <trkpt lat="42.44483" lon="0.05996">
        <ele>708.8</ele>
        <time>2016-07-31T08:57:43Z</time>
      </trkpt>
      <trkpt lat="42.44485" lon="0.05995">
        <ele>707.2</ele>
        <time>2016-07-31T08:57:44Z</time>
      </trkpt>
      <trkpt lat="42.4449" lon="0.05992">
        <ele>704.6</ele>
        <time>2016-07-31T08:57:46Z</time>
      </trkpt>
      <trkpt lat="42.44492" lon="0.05989">
        <ele>703.6</ele>
        <time>2016-07-31T08:57:49Z</time>
      </trkpt>
      <trkpt lat="42.44495" lon="0.0599">
        <ele>701</ele>
        <time>2016-07-31T08:57:54Z</time>
      </trkpt>
      <trkpt lat="42.44496" lon="0.05994">
        <ele>699.1</ele>
        <time>2016-07-31T08:58:02Z</time>
      </trkpt>
      <trkpt lat="42.44499" lon="0.05993">
        <ele>697.4</ele>
        <time>2016-07-31T08:58:07Z</time>
      </trkpt>
      <trkpt lat="42.44499" lon="0.05998">
        <ele>695.6</ele>
        <time>2016-07-31T08:58:15Z</time>
      </trkpt>
      <trkpt lat="42.44498" lon="0.06003">
        <ele>695.3</ele>
        <time>2016-07-31T08:58:16Z</time>
      </trkpt>
      <trkpt lat="42.44497" lon="0.06008">
        <ele>694.6</ele>
        <time>2016-07-31T08:58:17Z</time>
      </trkpt>
      <trkpt lat="42.44496" lon="0.06013">
        <ele>693.9</ele>
        <time>2016-07-31T08:58:18Z</time>
      </trkpt>
      <trkpt lat="42.44495" lon="0.06019">
        <ele>692.8</ele>
        <time>2016-07-31T08:58:19Z</time>
      </trkpt>
      <trkpt lat="42.44494" lon="0.06025">
        <ele>691.9</ele>
        <time>2016-07-31T08:58:20Z</time>
      </trkpt>
      <trkpt lat="42.44493" lon="0.06031">
        <ele>691.5</ele>
        <time>2016-07-31T08:58:21Z</time>
      </trkpt>
      <trkpt lat="42.44492" lon="0.06035">
        <ele>691.3</ele>
        <time>2016-07-31T08:58:22Z</time>
      </trkpt>
      <trkpt lat="42.4449" lon="0.06038">
        <ele>691.3</ele>
        <time>2016-07-31T08:58:23Z</time>
      </trkpt>
      <trkpt lat="42.44489" lon="0.06042">
        <ele>691.3</ele>
        <time>2016-07-31T08:58:24Z</time>
      </trkpt>
      <trkpt lat="42.44488" lon="0.06046">
        <ele>691</ele>
        <time>2016-07-31T08:58:25Z</time>
      </trkpt>
      <trkpt lat="42.44487" lon="0.06049">
        <ele>690.9</ele>
        <time>2016-07-31T08:58:26Z</time>
      </trkpt>
      <trkpt lat="42.44486" lon="0.06053">
        <ele>690.7</ele>
        <time>2016-07-31T08:58:27Z</time>
      </trkpt>
      <trkpt lat="42.44485" lon="0.06057">
        <ele>690.3</ele>
        <time>2016-07-31T08:58:28Z</time>
      </trkpt>
      <trkpt lat="42.44485" lon="0.06061">
        <ele>689.7</ele>
        <time>2016-07-31T08:58:29Z</time>
      </trkpt>
      <trkpt lat="42.44484" lon="0.06066">
        <ele>688.9</ele>
        <time>2016-07-31T08:58:30Z</time>
      </trkpt>
      <trkpt lat="42.44484" lon="0.0607">
        <ele>687.3</ele>
        <time>2016-07-31T08:58:31Z</time>
      </trkpt>
      <trkpt lat="42.44485" lon="0.06076">
        <ele>685.2</ele>
        <time>2016-07-31T08:58:32Z</time>
      </trkpt>
      <trkpt lat="42.44486" lon="0.06081">
        <ele>683</ele>
        <time>2016-07-31T08:58:33Z</time>
      </trkpt>
      <trkpt lat="42.44487" lon="0.06086">
        <ele>681.1</ele>
        <time>2016-07-31T08:58:34Z</time>
      </trkpt>
      <trkpt lat="42.44488" lon="0.0609">
        <ele>679.3</ele>
        <time>2016-07-31T08:58:35Z</time>
      </trkpt>
      <trkpt lat="42.44489" lon="0.06094">
        <ele>677.5</ele>
        <time>2016-07-31T08:58:36Z</time>
      </trkpt>
      <trkpt lat="42.44491" lon="0.06098">
        <ele>675.2</ele>
        <time>2016-07-31T08:58:37Z</time>
      </trkpt>
      <trkpt lat="42.44492" lon="0.06101">
        <ele>672.9</ele>
        <time>2016-07-31T08:58:38Z</time>
      </trkpt>
      <trkpt lat="42.44494" lon="0.06105">
        <ele>670.7</ele>
        <time>2016-07-31T08:58:39Z</time>
      </trkpt>
      <trkpt lat="42.44495" lon="0.06109">
        <ele>669</ele>
        <time>2016-07-31T08:58:40Z</time>
      </trkpt>
      <trkpt lat="42.44496" lon="0.06114">
        <ele>666.5</ele>
        <time>2016-07-31T08:58:42Z</time>
      </trkpt>
      <trkpt lat="42.44502" lon="0.06115">
        <ele>662.3</ele>
        <time>2016-07-31T08:58:44Z</time>
      </trkpt>
      <trkpt lat="42.44505" lon="0.06115">
        <ele>660.3</ele>
        <time>2016-07-31T08:58:45Z</time>
      </trkpt>
      <trkpt lat="42.44508" lon="0.06115">
        <ele>657.6</ele>
        <time>2016-07-31T08:58:47Z</time>
      </trkpt>
      <trkpt lat="42.44507" lon="0.06119">
        <ele>657</ele>
        <time>2016-07-31T08:58:53Z</time>
      </trkpt>
      <trkpt lat="42.44507" lon="0.06123">
        <ele>656.5</ele>
        <time>2016-07-31T08:58:56Z</time>
      </trkpt>
      <trkpt lat="42.4451" lon="0.06123">
        <ele>654.2</ele>
        <time>2016-07-31T08:59:04Z</time>
      </trkpt>
      <trkpt lat="42.44511" lon="0.06127">
        <ele>652.5</ele>
        <time>2016-07-31T08:59:07Z</time>
      </trkpt>
      <trkpt lat="42.44511" lon="0.06132">
        <ele>651.6</ele>
        <time>2016-07-31T08:59:10Z</time>
      </trkpt>
      <trkpt lat="42.44508" lon="0.06133">
        <ele>653</ele>
        <time>2016-07-31T08:59:14Z</time>
      </trkpt>
      <trkpt lat="42.44506" lon="0.06134">
        <ele>654.8</ele>
        <time>2016-07-31T08:59:17Z</time>
      </trkpt>
      <trkpt lat="42.44503" lon="0.06137">
        <ele>655.7</ele>
        <time>2016-07-31T08:59:19Z</time>
      </trkpt>
      <trkpt lat="42.44502" lon="0.06143">
        <ele>655.2</ele>
        <time>2016-07-31T08:59:21Z</time>
      </trkpt>
      <trkpt lat="42.44502" lon="0.06147">
        <ele>654.6</ele>
        <time>2016-07-31T08:59:22Z</time>
      </trkpt>
      <trkpt lat="42.44502" lon="0.06154">
        <ele>653.1</ele>
        <time>2016-07-31T08:59:24Z</time>
      </trkpt>
      <trkpt lat="42.44502" lon="0.06158">
        <ele>652</ele>
        <time>2016-07-31T08:59:25Z</time>
      </trkpt>
      <trkpt lat="42.44502" lon="0.06163">
        <ele>650.9</ele>
        <time>2016-07-31T08:59:26Z</time>
      </trkpt>
      <trkpt lat="42.44502" lon="0.06167">
        <ele>649.9</ele>
        <time>2016-07-31T08:59:27Z</time>
      </trkpt>
      <trkpt lat="42.44502" lon="0.06171">
        <ele>649</ele>
        <time>2016-07-31T08:59:28Z</time>
      </trkpt>
      <trkpt lat="42.44502" lon="0.06175">
        <ele>647.8</ele>
        <time>2016-07-31T08:59:29Z</time>
      </trkpt>
      <trkpt lat="42.44502" lon="0.0618">
        <ele>646.8</ele>
        <time>2016-07-31T08:59:30Z</time>
      </trkpt>
      <trkpt lat="42.44502" lon="0.06184">
        <ele>645.7</ele>
        <time>2016-07-31T08:59:31Z</time>
      </trkpt>
      <trkpt lat="42.44502" lon="0.06189">
        <ele>644.9</ele>
        <time>2016-07-31T08:59:32Z</time>
      </trkpt>
      <trkpt lat="42.44501" lon="0.06195">
        <ele>644.1</ele>
        <time>2016-07-31T08:59:34Z</time>
      </trkpt>
      <trkpt lat="42.44499" lon="0.06202">
        <ele>643.6</ele>
        <time>2016-07-31T08:59:36Z</time>
      </trkpt>
      <trkpt lat="42.44497" lon="0.0621">
        <ele>643.1</ele>
        <time>2016-07-31T08:59:38Z</time>
      </trkpt>
      <trkpt lat="42.44495" lon="0.06215">
        <ele>642.6</ele>
        <time>2016-07-31T08:59:39Z</time>
      </trkpt>
      <trkpt lat="42.44494" lon="0.0622">
        <ele>641.8</ele>
        <time>2016-07-31T08:59:40Z</time>
      </trkpt>
      <trkpt lat="42.44493" lon="0.06226">
        <ele>640.9</ele>
        <time>2016-07-31T08:59:41Z</time>
      </trkpt>
      <trkpt lat="42.44492" lon="0.06231">
        <ele>639.9</ele>
        <time>2016-07-31T08:59:42Z</time>
      </trkpt>
      <trkpt lat="42.44492" lon="0.06235">
        <ele>639</ele>
        <time>2016-07-31T08:59:43Z</time>
      </trkpt>
      <trkpt lat="42.44491" lon="0.06239">
        <ele>638.2</ele>
        <time>2016-07-31T08:59:44Z</time>
      </trkpt>
      <trkpt lat="42.4449" lon="0.06244">
        <ele>637.1</ele>
        <time>2016-07-31T08:59:45Z</time>
      </trkpt>
      <trkpt lat="42.4449" lon="0.06249">
        <ele>635.9</ele>
        <time>2016-07-31T08:59:46Z</time>
      </trkpt>
      <trkpt lat="42.4449" lon="0.06255">
        <ele>634.4</ele>
        <time>2016-07-31T08:59:47Z</time>
      </trkpt>
      <trkpt lat="42.4449" lon="0.06258">
        <ele>633.2</ele>
        <time>2016-07-31T08:59:48Z</time>
      </trkpt>
      <trkpt lat="42.44492" lon="0.06262">
        <ele>631.4</ele>
        <time>2016-07-31T08:59:49Z</time>
      </trkpt>
      <trkpt lat="42.44494" lon="0.06264">
        <ele>629.5</ele>
        <time>2016-07-31T08:59:50Z</time>
      </trkpt>
      <trkpt lat="42.44497" lon="0.06269">
        <ele>627</ele>
        <time>2016-07-31T08:59:52Z</time>
      </trkpt>
      <trkpt lat="42.44495" lon="0.06272">
        <ele>626.8</ele>
        <time>2016-07-31T08:59:57Z</time>
      </trkpt>
      <trkpt lat="42.44494" lon="0.06277">
        <ele>626.3</ele>
        <time>2016-07-31T08:59:59Z</time>
      </trkpt>
      <trkpt lat="42.44492" lon="0.06283">
        <ele>625.3</ele>
        <time>2016-07-31T09:00:01Z</time>
      </trkpt>
      <trkpt lat="42.44491" lon="0.06286">
        <ele>624.8</ele>
        <time>2016-07-31T09:00:02Z</time>
      </trkpt>
      <trkpt lat="42.4449" lon="0.0629">
        <ele>624.1</ele>
        <time>2016-07-31T09:00:03Z</time>
      </trkpt>
      <trkpt lat="42.44488" lon="0.06295">
        <ele>623.8</ele>
        <time>2016-07-31T09:00:04Z</time>
      </trkpt>
      <trkpt lat="42.44486" lon="0.06301">
        <ele>623.6</ele>
        <time>2016-07-31T09:00:05Z</time>
      </trkpt>
      <trkpt lat="42.44484" lon="0.06306">
        <ele>623.4</ele>
        <time>2016-07-31T09:00:06Z</time>
      </trkpt>
      <trkpt lat="42.44482" lon="0.06311">
        <ele>623.1</ele>
        <time>2016-07-31T09:00:07Z</time>
      </trkpt>
      <trkpt lat="42.4448" lon="0.06315">
        <ele>622.8</ele>
        <time>2016-07-31T09:00:08Z</time>
      </trkpt>
      <trkpt lat="42.44478" lon="0.0632">
        <ele>622.6</ele>
        <time>2016-07-31T09:00:09Z</time>
      </trkpt>
      <trkpt lat="42.44476" lon="0.06325">
        <ele>622</ele>
        <time>2016-07-31T09:00:10Z</time>
      </trkpt>
      <trkpt lat="42.44474" lon="0.0633">
        <ele>621.4</ele>
        <time>2016-07-31T09:00:11Z</time>
      </trkpt>
      <trkpt lat="42.44472" lon="0.06335">
        <ele>620.7</ele>
        <time>2016-07-31T09:00:12Z</time>
      </trkpt>
      <trkpt lat="42.44471" lon="0.06341">
        <ele>619.8</ele>
        <time>2016-07-31T09:00:13Z</time>
      </trkpt>
      <trkpt lat="42.44469" lon="0.06347">
        <ele>618.8</ele>
        <time>2016-07-31T09:00:14Z</time>
      </trkpt>
      <trkpt lat="42.44467" lon="0.06354">
        <ele>617.7</ele>
        <time>2016-07-31T09:00:15Z</time>
      </trkpt>
      <trkpt lat="42.44465" lon="0.0636">
        <ele>616.5</ele>
        <time>2016-07-31T09:00:16Z</time>
      </trkpt>
      <trkpt lat="42.44463" lon="0.06366">
        <ele>615.2</ele>
        <time>2016-07-31T09:00:17Z</time>
      </trkpt>
      <trkpt lat="42.44462" lon="0.06373">
        <ele>614</ele>
        <time>2016-07-31T09:00:18Z</time>
      </trkpt>
      <trkpt lat="42.4446" lon="0.06379">
        <ele>613</ele>
        <time>2016-07-31T09:00:19Z</time>
      </trkpt>
      <trkpt lat="42.44459" lon="0.06384">
        <ele>612.3</ele>
        <time>2016-07-31T09:00:20Z</time>
      </trkpt>
      <trkpt lat="42.44457" lon="0.0639">
        <ele>611.7</ele>
        <time>2016-07-31T09:00:21Z</time>
      </trkpt>
      <trkpt lat="42.44456" lon="0.06396">
        <ele>611.1</ele>
        <time>2016-07-31T09:00:22Z</time>
      </trkpt>
      <trkpt lat="42.44454" lon="0.06402">
        <ele>610.5</ele>
        <time>2016-07-31T09:00:23Z</time>
      </trkpt>
      <trkpt lat="42.44452" lon="0.06408">
        <ele>609.9</ele>
        <time>2016-07-31T09:00:24Z</time>
      </trkpt>
      <trkpt lat="42.44451" lon="0.06413">
        <ele>609.4</ele>
        <time>2016-07-31T09:00:25Z</time>
      </trkpt>
      <trkpt lat="42.44449" lon="0.06418">
        <ele>608.9</ele>
        <time>2016-07-31T09:00:26Z</time>
      </trkpt>
      <trkpt lat="42.44447" lon="0.06424">
        <ele>608.3</ele>
        <time>2016-07-31T09:00:27Z</time>
      </trkpt>
      <trkpt lat="42.44445" lon="0.06429">
        <ele>607.7</ele>
        <time>2016-07-31T09:00:28Z</time>
      </trkpt>
      <trkpt lat="42.44442" lon="0.06435">
        <ele>607</ele>
        <time>2016-07-31T09:00:29Z</time>
      </trkpt>
      <trkpt lat="42.4444" lon="0.06441">
        <ele>606.3</ele>
        <time>2016-07-31T09:00:30Z</time>
      </trkpt>
      <trkpt lat="42.44438" lon="0.06446">
        <ele>605.6</ele>
        <time>2016-07-31T09:00:31Z</time>
      </trkpt>
      <trkpt lat="42.44436" lon="0.06452">
        <ele>604.8</ele>
        <time>2016-07-31T09:00:32Z</time>
      </trkpt>
      <trkpt lat="42.44434" lon="0.06458">
        <ele>603.9</ele>
        <time>2016-07-31T09:00:33Z</time>
      </trkpt>
      <trkpt lat="42.44431" lon="0.06463">
        <ele>603.7</ele>
        <time>2016-07-31T09:00:34Z</time>
      </trkpt>
      <trkpt lat="42.44429" lon="0.06468">
        <ele>603.7</ele>
        <time>2016-07-31T09:00:35Z</time>
      </trkpt>
      <trkpt lat="42.44426" lon="0.06474">
        <ele>603.6</ele>
        <time>2016-07-31T09:00:36Z</time>
      </trkpt>
      <trkpt lat="42.44423" lon="0.06479">
        <ele>603.5</ele>
        <time>2016-07-31T09:00:37Z</time>
      </trkpt>
      <trkpt lat="42.4442" lon="0.06485">
        <ele>603.4</ele>
        <time>2016-07-31T09:00:38Z</time>
      </trkpt>
      <trkpt lat="42.44418" lon="0.0649">
        <ele>603.3</ele>
        <time>2016-07-31T09:00:39Z</time>
      </trkpt>
      <trkpt lat="42.44415" lon="0.06495">
        <ele>603.1</ele>
        <time>2016-07-31T09:00:40Z</time>
      </trkpt>
      <trkpt lat="42.44412" lon="0.06501">
        <ele>602.9</ele>
        <time>2016-07-31T09:00:41Z</time>
      </trkpt>
      <trkpt lat="42.44409" lon="0.06507">
        <ele>602.6</ele>
        <time>2016-07-31T09:00:42Z</time>
      </trkpt>
      <trkpt lat="42.44406" lon="0.06512">
        <ele>602.4</ele>
        <time>2016-07-31T09:00:43Z</time>
      </trkpt>
      <trkpt lat="42.44403" lon="0.06517">
        <ele>602.1</ele>
        <time>2016-07-31T09:00:44Z</time>
      </trkpt>
      <trkpt lat="42.444" lon="0.06522">
        <ele>601.9</ele>
        <time>2016-07-31T09:00:45Z</time>
      </trkpt>
      <trkpt lat="42.44397" lon="0.06527">
        <ele>601.6</ele>
        <time>2016-07-31T09:00:46Z</time>
      </trkpt>
      <trkpt lat="42.44395" lon="0.06531">
        <ele>601.3</ele>
        <time>2016-07-31T09:00:47Z</time>
      </trkpt>
      <trkpt lat="42.44392" lon="0.06535">
        <ele>601</ele>
        <time>2016-07-31T09:00:48Z</time>
      </trkpt>
      <trkpt lat="42.4439" lon="0.06539">
        <ele>600.8</ele>
        <time>2016-07-31T09:00:49Z</time>
      </trkpt>
      <trkpt lat="42.44387" lon="0.06543">
        <ele>600.6</ele>
        <time>2016-07-31T09:00:51Z</time>
      </trkpt>
      <trkpt lat="42.44381" lon="0.06545">
        <ele>601.1</ele>
        <time>2016-07-31T09:00:53Z</time>
      </trkpt>
      <trkpt lat="42.44377" lon="0.06544">
        <ele>601.6</ele>
        <time>2016-07-31T09:00:54Z</time>
      </trkpt>
      <trkpt lat="42.44374" lon="0.06544">
        <ele>602</ele>
        <time>2016-07-31T09:00:55Z</time>
      </trkpt>
      <trkpt lat="42.4437" lon="0.06544">
        <ele>602.2</ele>
        <time>2016-07-31T09:00:56Z</time>
      </trkpt>
      <trkpt lat="42.44366" lon="0.06545">
        <ele>602.4</ele>
        <time>2016-07-31T09:00:57Z</time>
      </trkpt>
      <trkpt lat="42.44361" lon="0.06547">
        <ele>602.6</ele>
        <time>2016-07-31T09:00:58Z</time>
      </trkpt>
      <trkpt lat="42.44357" lon="0.06549">
        <ele>602.8</ele>
        <time>2016-07-31T09:00:59Z</time>
      </trkpt>
      <trkpt lat="42.44353" lon="0.06551">
        <ele>602.9</ele>
        <time>2016-07-31T09:01:00Z</time>
      </trkpt>
      <trkpt lat="42.44349" lon="0.06553">
        <ele>603</ele>
        <time>2016-07-31T09:01:01Z</time>
      </trkpt>
      <trkpt lat="42.44345" lon="0.06555">
        <ele>603.1</ele>
        <time>2016-07-31T09:01:02Z</time>
      </trkpt>
      <trkpt lat="42.44342" lon="0.06558">
        <ele>603.2</ele>
        <time>2016-07-31T09:01:03Z</time>
      </trkpt>
      <trkpt lat="42.44338" lon="0.0656">
        <ele>603.2</ele>
        <time>2016-07-31T09:01:04Z</time>
      </trkpt>
      <trkpt lat="42.44335" lon="0.06563">
        <ele>603.2</ele>
        <time>2016-07-31T09:01:05Z</time>
      </trkpt>
      <trkpt lat="42.44332" lon="0.06565">
        <ele>603.3</ele>
        <time>2016-07-31T09:01:06Z</time>
      </trkpt>
      <trkpt lat="42.44329" lon="0.06567">
        <ele>603.3</ele>
        <time>2016-07-31T09:01:07Z</time>
      </trkpt>
      <trkpt lat="42.44324" lon="0.06569">
        <ele>603.6</ele>
        <time>2016-07-31T09:01:09Z</time>
      </trkpt>
      <trkpt lat="42.44319" lon="0.06569">
        <ele>603.9</ele>
        <time>2016-07-31T09:01:11Z</time>
      </trkpt>
      <trkpt lat="42.44314" lon="0.06569">
        <ele>604.1</ele>
        <time>2016-07-31T09:01:13Z</time>
      </trkpt>
      <trkpt lat="42.4431" lon="0.06567">
        <ele>604.6</ele>
        <time>2016-07-31T09:01:15Z</time>
      </trkpt>
      <trkpt lat="42.44307" lon="0.06561">
        <ele>605.3</ele>
        <time>2016-07-31T09:01:17Z</time>
      </trkpt>
      <trkpt lat="42.44306" lon="0.06557">
        <ele>605.7</ele>
        <time>2016-07-31T09:01:18Z</time>
      </trkpt>
      <trkpt lat="42.44305" lon="0.06553">
        <ele>606.1</ele>
        <time>2016-07-31T09:01:19Z</time>
      </trkpt>
      <trkpt lat="42.44303" lon="0.0655">
        <ele>606.4</ele>
        <time>2016-07-31T09:01:20Z</time>
      </trkpt>
      <trkpt lat="42.443" lon="0.06545">
        <ele>607.1</ele>
        <time>2016-07-31T09:01:22Z</time>
      </trkpt>
      <trkpt lat="42.44297" lon="0.0654">
        <ele>607.9</ele>
        <time>2016-07-31T09:01:24Z</time>
      </trkpt>
      <trkpt lat="42.44293" lon="0.06535">
        <ele>608.7</ele>
        <time>2016-07-31T09:01:26Z</time>
      </trkpt>
      <trkpt lat="42.44289" lon="0.06531">
        <ele>609.3</ele>
        <time>2016-07-31T09:01:28Z</time>
      </trkpt>
      <trkpt lat="42.44285" lon="0.06527">
        <ele>609.8</ele>
        <time>2016-07-31T09:01:30Z</time>
      </trkpt>
      <trkpt lat="42.44282" lon="0.06523">
        <ele>610.3</ele>
        <time>2016-07-31T09:01:32Z</time>
      </trkpt>
      <trkpt lat="42.44278" lon="0.06519">
        <ele>610.8</ele>
        <time>2016-07-31T09:01:34Z</time>
      </trkpt>
      <trkpt lat="42.44274" lon="0.06517">
        <ele>611.1</ele>
        <time>2016-07-31T09:01:36Z</time>
      </trkpt>
      <trkpt lat="42.44269" lon="0.06515">
        <ele>611.3</ele>
        <time>2016-07-31T09:01:38Z</time>
      </trkpt>
      <trkpt lat="42.44264" lon="0.06514">
        <ele>611.4</ele>
        <time>2016-07-31T09:01:40Z</time>
      </trkpt>
      <trkpt lat="42.44259" lon="0.06514">
        <ele>611.5</ele>
        <time>2016-07-31T09:01:42Z</time>
      </trkpt>
      <trkpt lat="42.44255" lon="0.06513">
        <ele>611.6</ele>
        <time>2016-07-31T09:01:44Z</time>
      </trkpt>
      <trkpt lat="42.4425" lon="0.06513">
        <ele>611.6</ele>
        <time>2016-07-31T09:01:46Z</time>
      </trkpt>
      <trkpt lat="42.44246" lon="0.06512">
        <ele>611.7</ele>
        <time>2016-07-31T09:01:48Z</time>
      </trkpt>
      <trkpt lat="42.44241" lon="0.06511">
        <ele>611.8</ele>
        <time>2016-07-31T09:01:50Z</time>
      </trkpt>
      <trkpt lat="42.44236" lon="0.06511">
        <ele>611.9</ele>
        <time>2016-07-31T09:01:52Z</time>
      </trkpt>
      <trkpt lat="42.44231" lon="0.0651">
        <ele>612</ele>
        <time>2016-07-31T09:01:54Z</time>
      </trkpt>
      <trkpt lat="42.44226" lon="0.0651">
        <ele>612</ele>
        <time>2016-07-31T09:01:56Z</time>
      </trkpt>
      <trkpt lat="42.44222" lon="0.06511">
        <ele>611.9</ele>
        <time>2016-07-31T09:01:58Z</time>
      </trkpt>
      <trkpt lat="42.44217" lon="0.06511">
        <ele>611.9</ele>
        <time>2016-07-31T09:02:00Z</time>
      </trkpt>
      <trkpt lat="42.44213" lon="0.06511">
        <ele>612</ele>
        <time>2016-07-31T09:02:02Z</time>
      </trkpt>
      <trkpt lat="42.44208" lon="0.06509">
        <ele>612.1</ele>
        <time>2016-07-31T09:02:04Z</time>
      </trkpt>
      <trkpt lat="42.44204" lon="0.06509">
        <ele>612.1</ele>
        <time>2016-07-31T09:02:06Z</time>
      </trkpt>
      <trkpt lat="42.44199" lon="0.06508">
        <ele>612.1</ele>
        <time>2016-07-31T09:02:08Z</time>
      </trkpt>
      <trkpt lat="42.44194" lon="0.06506">
        <ele>612.2</ele>
        <time>2016-07-31T09:02:10Z</time>
      </trkpt>
      <trkpt lat="42.44191" lon="0.06505">
        <ele>612.3</ele>
        <time>2016-07-31T09:02:11Z</time>
      </trkpt>
      <trkpt lat="42.44189" lon="0.06503">
        <ele>612.3</ele>
        <time>2016-07-31T09:02:12Z</time>
      </trkpt>
      <trkpt lat="42.44186" lon="0.06502">
        <ele>612.4</ele>
        <time>2016-07-31T09:02:13Z</time>
      </trkpt>
      <trkpt lat="42.44184" lon="0.06501">
        <ele>612.5</ele>
        <time>2016-07-31T09:02:14Z</time>
      </trkpt>
      <trkpt lat="42.44181" lon="0.06499">
        <ele>612.6</ele>
        <time>2016-07-31T09:02:15Z</time>
      </trkpt>
      <trkpt lat="42.44178" lon="0.06498">
        <ele>612.6</ele>
        <time>2016-07-31T09:02:16Z</time>
      </trkpt>
      <trkpt lat="42.44176" lon="0.06497">
        <ele>612.6</ele>
        <time>2016-07-31T09:02:17Z</time>
      </trkpt>
      <trkpt lat="42.44173" lon="0.06496">
        <ele>612.7</ele>
        <time>2016-07-31T09:02:18Z</time>
      </trkpt>
      <trkpt lat="42.4417" lon="0.06495">
        <ele>612.8</ele>
        <time>2016-07-31T09:02:19Z</time>
      </trkpt>
      <trkpt lat="42.44168" lon="0.06494">
        <ele>612.8</ele>
        <time>2016-07-31T09:02:20Z</time>
      </trkpt>
      <trkpt lat="42.44165" lon="0.06492">
        <ele>612.9</ele>
        <time>2016-07-31T09:02:21Z</time>
      </trkpt>
      <trkpt lat="42.44163" lon="0.0649">
        <ele>613</ele>
        <time>2016-07-31T09:02:22Z</time>
      </trkpt>
      <trkpt lat="42.4416" lon="0.06489">
        <ele>613.1</ele>
        <time>2016-07-31T09:02:23Z</time>
      </trkpt>
      <trkpt lat="42.44155" lon="0.06486">
        <ele>613.3</ele>
        <time>2016-07-31T09:02:25Z</time>
      </trkpt>
      <trkpt lat="42.44151" lon="0.06482">
        <ele>613.5</ele>
        <time>2016-07-31T09:02:27Z</time>
      </trkpt>
      <trkpt lat="42.44146" lon="0.06479">
        <ele>613.7</ele>
        <time>2016-07-31T09:02:29Z</time>
      </trkpt>
      <trkpt lat="42.44144" lon="0.06477">
        <ele>613.8</ele>
        <time>2016-07-31T09:02:30Z</time>
      </trkpt>
      <trkpt lat="42.44142" lon="0.06476">
        <ele>613.9</ele>
        <time>2016-07-31T09:02:31Z</time>
      </trkpt>
      <trkpt lat="42.44139" lon="0.06474">
        <ele>614</ele>
        <time>2016-07-31T09:02:32Z</time>
      </trkpt>
      <trkpt lat="42.44137" lon="0.06472">
        <ele>614.1</ele>
        <time>2016-07-31T09:02:33Z</time>
      </trkpt>
      <trkpt lat="42.44134" lon="0.0647">
        <ele>614.2</ele>
        <time>2016-07-31T09:02:34Z</time>
      </trkpt>
      <trkpt lat="42.4413" lon="0.06466">
        <ele>614.4</ele>
        <time>2016-07-31T09:02:36Z</time>
      </trkpt>
      <trkpt lat="42.44125" lon="0.06463">
        <ele>614.6</ele>
        <time>2016-07-31T09:02:38Z</time>
      </trkpt>
      <trkpt lat="42.44123" lon="0.06461">
        <ele>614.9</ele>
        <time>2016-07-31T09:02:39Z</time>
      </trkpt>
      <trkpt lat="42.4412" lon="0.06459">
        <ele>615.2</ele>
        <time>2016-07-31T09:02:40Z</time>
      </trkpt>
      <trkpt lat="42.44116" lon="0.06456">
        <ele>615.9</ele>
        <time>2016-07-31T09:02:42Z</time>
      </trkpt>
      <trkpt lat="42.44112" lon="0.06453">
        <ele>616.6</ele>
        <time>2016-07-31T09:02:44Z</time>
      </trkpt>
      <trkpt lat="42.44108" lon="0.0645">
        <ele>617.2</ele>
        <time>2016-07-31T09:02:46Z</time>
      </trkpt>
      <trkpt lat="42.44105" lon="0.06447">
        <ele>617.9</ele>
        <time>2016-07-31T09:02:48Z</time>
      </trkpt>
      <trkpt lat="42.44101" lon="0.06445">
        <ele>618.5</ele>
        <time>2016-07-31T09:02:50Z</time>
      </trkpt>
      <trkpt lat="42.44097" lon="0.06442">
        <ele>619.1</ele>
        <time>2016-07-31T09:02:52Z</time>
      </trkpt>
      <trkpt lat="42.44094" lon="0.06439">
        <ele>619.8</ele>
        <time>2016-07-31T09:02:54Z</time>
      </trkpt>
      <trkpt lat="42.4409" lon="0.06435">
        <ele>620.5</ele>
        <time>2016-07-31T09:02:56Z</time>
      </trkpt>
      <trkpt lat="42.44086" lon="0.06432">
        <ele>621.1</ele>
        <time>2016-07-31T09:02:58Z</time>
      </trkpt>
      <trkpt lat="42.44082" lon="0.0643">
        <ele>621.6</ele>
        <time>2016-07-31T09:03:00Z</time>
      </trkpt>
      <trkpt lat="42.44079" lon="0.06427">
        <ele>622.2</ele>
        <time>2016-07-31T09:03:02Z</time>
      </trkpt>
      <trkpt lat="42.44075" lon="0.06425">
        <ele>622.7</ele>
        <time>2016-07-31T09:03:04Z</time>
      </trkpt>
      <trkpt lat="42.44071" lon="0.06423">
        <ele>623.2</ele>
        <time>2016-07-31T09:03:06Z</time>
      </trkpt>
      <trkpt lat="42.44066" lon="0.06421">
        <ele>623.6</ele>
        <time>2016-07-31T09:03:08Z</time>
      </trkpt>
      <trkpt lat="42.44062" lon="0.06419">
        <ele>624.1</ele>
        <time>2016-07-31T09:03:10Z</time>
      </trkpt>
      <trkpt lat="42.44058" lon="0.06416">
        <ele>624.6</ele>
        <time>2016-07-31T09:03:12Z</time>
      </trkpt>
      <trkpt lat="42.44055" lon="0.06413">
        <ele>625.2</ele>
        <time>2016-07-31T09:03:14Z</time>
      </trkpt>
      <trkpt lat="42.44052" lon="0.06409">
        <ele>625.8</ele>
        <time>2016-07-31T09:03:16Z</time>
      </trkpt>
      <trkpt lat="42.44048" lon="0.06406">
        <ele>626.4</ele>
        <time>2016-07-31T09:03:18Z</time>
      </trkpt>
      <trkpt lat="42.44045" lon="0.06403">
        <ele>627</ele>
        <time>2016-07-31T09:03:20Z</time>
      </trkpt>
      <trkpt lat="42.44041" lon="0.06399">
        <ele>627.5</ele>
        <time>2016-07-31T09:03:22Z</time>
      </trkpt>
      <trkpt lat="42.44038" lon="0.06396">
        <ele>628.2</ele>
        <time>2016-07-31T09:03:24Z</time>
      </trkpt>
      <trkpt lat="42.44036" lon="0.06391">
        <ele>629</ele>
        <time>2016-07-31T09:03:26Z</time>
      </trkpt>
      <trkpt lat="42.44034" lon="0.06387">
        <ele>629.8</ele>
        <time>2016-07-31T09:03:28Z</time>
      </trkpt>
      <trkpt lat="42.44033" lon="0.06382">
        <ele>630.6</ele>
        <time>2016-07-31T09:03:30Z</time>
      </trkpt>
      <trkpt lat="42.44033" lon="0.06377">
        <ele>631.3</ele>
        <time>2016-07-31T09:03:32Z</time>
      </trkpt>
      <trkpt lat="42.44033" lon="0.06373">
        <ele>632.2</ele>
        <time>2016-07-31T09:03:34Z</time>
      </trkpt>
      <trkpt lat="42.44035" lon="0.06369">
        <ele>633.2</ele>
        <time>2016-07-31T09:03:36Z</time>
      </trkpt>
      <trkpt lat="42.44036" lon="0.06365">
        <ele>634.1</ele>
        <time>2016-07-31T09:03:38Z</time>
      </trkpt>
      <trkpt lat="42.44038" lon="0.06361">
        <ele>634.8</ele>
        <time>2016-07-31T09:03:40Z</time>
      </trkpt>
      <trkpt lat="42.44041" lon="0.06358">
        <ele>635.3</ele>
        <time>2016-07-31T09:03:42Z</time>
      </trkpt>
      <trkpt lat="42.44044" lon="0.06356">
        <ele>635.7</ele>
        <time>2016-07-31T09:03:44Z</time>
      </trkpt>
      <trkpt lat="42.44048" lon="0.06355">
        <ele>635.9</ele>
        <time>2016-07-31T09:03:46Z</time>
      </trkpt>
      <trkpt lat="42.44052" lon="0.06354">
        <ele>636.2</ele>
        <time>2016-07-31T09:03:48Z</time>
      </trkpt>
      <trkpt lat="42.44055" lon="0.06351">
        <ele>636.8</ele>
        <time>2016-07-31T09:03:50Z</time>
      </trkpt>
      <trkpt lat="42.44059" lon="0.06348">
        <ele>637.5</ele>
        <time>2016-07-31T09:03:52Z</time>
      </trkpt>
      <trkpt lat="42.44062" lon="0.06346">
        <ele>638</ele>
        <time>2016-07-31T09:03:54Z</time>
      </trkpt>
      <trkpt lat="42.44066" lon="0.06343">
        <ele>638.6</ele>
        <time>2016-07-31T09:03:56Z</time>
      </trkpt>
      <trkpt lat="42.4407" lon="0.06341">
        <ele>639.2</ele>
        <time>2016-07-31T09:03:58Z</time>
      </trkpt>
      <trkpt lat="42.44074" lon="0.06338">
        <ele>639.8</ele>
        <time>2016-07-31T09:04:00Z</time>
      </trkpt>
      <trkpt lat="42.44077" lon="0.06335">
        <ele>640.3</ele>
        <time>2016-07-31T09:04:02Z</time>
      </trkpt>
      <trkpt lat="42.44081" lon="0.06333">
        <ele>640.8</ele>
        <time>2016-07-31T09:04:04Z</time>
      </trkpt>
      <trkpt lat="42.44084" lon="0.06331">
        <ele>641.3</ele>
        <time>2016-07-31T09:04:06Z</time>
      </trkpt>
      <trkpt lat="42.44088" lon="0.06329">
        <ele>641.7</ele>
        <time>2016-07-31T09:04:08Z</time>
      </trkpt>
      <trkpt lat="42.44091" lon="0.06328">
        <ele>641.9</ele>
        <time>2016-07-31T09:04:10Z</time>
      </trkpt>
      <trkpt lat="42.44095" lon="0.06326">
        <ele>642.2</ele>
        <time>2016-07-31T09:04:12Z</time>
      </trkpt>
      <trkpt lat="42.44099" lon="0.06324">
        <ele>642.7</ele>
        <time>2016-07-31T09:04:14Z</time>
      </trkpt>
      <trkpt lat="42.44102" lon="0.06322">
        <ele>643.2</ele>
        <time>2016-07-31T09:04:16Z</time>
      </trkpt>
      <trkpt lat="42.44104" lon="0.06318">
        <ele>644.2</ele>
        <time>2016-07-31T09:04:18Z</time>
      </trkpt>
      <trkpt lat="42.44105" lon="0.06313">
        <ele>645.4</ele>
        <time>2016-07-31T09:04:20Z</time>
      </trkpt>
      <trkpt lat="42.44103" lon="0.06307">
        <ele>646.7</ele>
        <time>2016-07-31T09:04:22Z</time>
      </trkpt>
      <trkpt lat="42.44099" lon="0.06304">
        <ele>647.6</ele>
        <time>2016-07-31T09:04:24Z</time>
      </trkpt>
      <trkpt lat="42.44094" lon="0.06303">
        <ele>648</ele>
        <time>2016-07-31T09:04:26Z</time>
      </trkpt>
      <trkpt lat="42.44089" lon="0.06304">
        <ele>648</ele>
        <time>2016-07-31T09:04:28Z</time>
      </trkpt>
      <trkpt lat="42.44085" lon="0.06304">
        <ele>647.9</ele>
        <time>2016-07-31T09:04:30Z</time>
      </trkpt>
      <trkpt lat="42.44081" lon="0.06305">
        <ele>647.9</ele>
        <time>2016-07-31T09:04:32Z</time>
      </trkpt>
      <trkpt lat="42.44076" lon="0.06305">
        <ele>648</ele>
        <time>2016-07-31T09:04:34Z</time>
      </trkpt>
      <trkpt lat="42.44072" lon="0.06304">
        <ele>648.2</ele>
        <time>2016-07-31T09:04:36Z</time>
      </trkpt>
      <trkpt lat="42.44068" lon="0.06303">
        <ele>648.6</ele>
        <time>2016-07-31T09:04:38Z</time>
      </trkpt>
      <trkpt lat="42.44064" lon="0.06301">
        <ele>649</ele>
        <time>2016-07-31T09:04:40Z</time>
      </trkpt>
      <trkpt lat="42.44061" lon="0.06299">
        <ele>649.7</ele>
        <time>2016-07-31T09:04:42Z</time>
      </trkpt>
      <trkpt lat="42.44058" lon="0.06296">
        <ele>650.5</ele>
        <time>2016-07-31T09:04:44Z</time>
      </trkpt>
      <trkpt lat="42.44055" lon="0.06293">
        <ele>651.5</ele>
        <time>2016-07-31T09:04:46Z</time>
      </trkpt>
      <trkpt lat="42.44053" lon="0.06288">
        <ele>652.7</ele>
        <time>2016-07-31T09:04:48Z</time>
      </trkpt>
      <trkpt lat="42.44053" lon="0.06283">
        <ele>654.3</ele>
        <time>2016-07-31T09:04:50Z</time>
      </trkpt>
      <trkpt lat="42.44055" lon="0.06279">
        <ele>655.7</ele>
        <time>2016-07-31T09:04:52Z</time>
      </trkpt>
      <trkpt lat="42.44058" lon="0.06275">
        <ele>656.6</ele>
        <time>2016-07-31T09:04:54Z</time>
      </trkpt>
      <trkpt lat="42.44062" lon="0.06275">
        <ele>656.7</ele>
        <time>2016-07-31T09:04:56Z</time>
      </trkpt>
      <trkpt lat="42.44066" lon="0.06276">
        <ele>656.3</ele>
        <time>2016-07-31T09:04:58Z</time>
      </trkpt>
      <trkpt lat="42.4407" lon="0.06279">
        <ele>655.4</ele>
        <time>2016-07-31T09:05:00Z</time>
      </trkpt>
      <trkpt lat="42.44074" lon="0.06282">
        <ele>654.3</ele>
        <time>2016-07-31T09:05:02Z</time>
      </trkpt>
      <trkpt lat="42.44078" lon="0.06285">
        <ele>653.1</ele>
        <time>2016-07-31T09:05:04Z</time>
      </trkpt>
      <trkpt lat="42.44081" lon="0.06288">
        <ele>652.2</ele>
        <time>2016-07-31T09:05:06Z</time>
      </trkpt>
      <trkpt lat="42.44085" lon="0.06289">
        <ele>651.8</ele>
        <time>2016-07-31T09:05:08Z</time>
      </trkpt>
      <trkpt lat="42.4409" lon="0.06289">
        <ele>651.6</ele>
        <time>2016-07-31T09:05:10Z</time>
      </trkpt>
      <trkpt lat="42.44094" lon="0.06288">
        <ele>651.8</ele>
        <time>2016-07-31T09:05:12Z</time>
      </trkpt>
      <trkpt lat="42.44098" lon="0.06287">
        <ele>652.2</ele>
        <time>2016-07-31T09:05:14Z</time>
      </trkpt>
      <trkpt lat="42.44102" lon="0.06286">
        <ele>652.5</ele>
        <time>2016-07-31T09:05:16Z</time>
      </trkpt>
      <trkpt lat="42.44107" lon="0.06284">
        <ele>653</ele>
        <time>2016-07-31T09:05:18Z</time>
      </trkpt>
      <trkpt lat="42.44111" lon="0.06282">
        <ele>653.5</ele>
        <time>2016-07-31T09:05:20Z</time>
      </trkpt>
      <trkpt lat="42.44115" lon="0.0628">
        <ele>654</ele>
        <time>2016-07-31T09:05:22Z</time>
      </trkpt>
      <trkpt lat="42.44118" lon="0.06278">
        <ele>654.8</ele>
        <time>2016-07-31T09:05:24Z</time>
      </trkpt>
      <trkpt lat="42.44122" lon="0.06276">
        <ele>655.4</ele>
        <time>2016-07-31T09:05:26Z</time>
      </trkpt>
      <trkpt lat="42.44126" lon="0.06274">
        <ele>656</ele>
        <time>2016-07-31T09:05:28Z</time>
      </trkpt>
      <trkpt lat="42.4413" lon="0.06273">
        <ele>656.6</ele>
        <time>2016-07-31T09:05:30Z</time>
      </trkpt>
      <trkpt lat="42.44134" lon="0.06272">
        <ele>657.2</ele>
        <time>2016-07-31T09:05:32Z</time>
      </trkpt>
      <trkpt lat="42.44139" lon="0.06271">
        <ele>657.7</ele>
        <time>2016-07-31T09:05:34Z</time>
      </trkpt>
      <trkpt lat="42.44143" lon="0.0627">
        <ele>658.1</ele>
        <time>2016-07-31T09:05:36Z</time>
      </trkpt>
      <trkpt lat="42.44148" lon="0.06269">
        <ele>658.7</ele>
        <time>2016-07-31T09:05:38Z</time>
      </trkpt>
      <trkpt lat="42.44151" lon="0.06267">
        <ele>659.7</ele>
        <time>2016-07-31T09:05:40Z</time>
      </trkpt>
      <trkpt lat="42.44154" lon="0.06264">
        <ele>661.1</ele>
        <time>2016-07-31T09:05:42Z</time>
      </trkpt>
      <trkpt lat="42.44155" lon="0.06259">
        <ele>662.8</ele>
        <time>2016-07-31T09:05:44Z</time>
      </trkpt>
      <trkpt lat="42.44153" lon="0.06254">
        <ele>664.4</ele>
        <time>2016-07-31T09:05:46Z</time>
      </trkpt>
      <trkpt lat="42.44148" lon="0.06251">
        <ele>664.9</ele>
        <time>2016-07-31T09:05:48Z</time>
      </trkpt>
      <trkpt lat="42.44143" lon="0.06252">
        <ele>664.4</ele>
        <time>2016-07-31T09:05:50Z</time>
      </trkpt>
      <trkpt lat="42.44138" lon="0.06254">
        <ele>663.4</ele>
        <time>2016-07-31T09:05:52Z</time>
      </trkpt>
      <trkpt lat="42.44134" lon="0.06256">
        <ele>662.5</ele>
        <time>2016-07-31T09:05:54Z</time>
      </trkpt>
      <trkpt lat="42.44129" lon="0.06258">
        <ele>661.7</ele>
        <time>2016-07-31T09:05:56Z</time>
      </trkpt>
      <trkpt lat="42.44124" lon="0.06258">
        <ele>661.2</ele>
        <time>2016-07-31T09:05:58Z</time>
      </trkpt>
      <trkpt lat="42.4412" lon="0.06259">
        <ele>661.2</ele>
        <time>2016-07-31T09:06:00Z</time>
      </trkpt>
      <trkpt lat="42.44116" lon="0.06258">
        <ele>661.3</ele>
        <time>2016-07-31T09:06:02Z</time>
      </trkpt>
      <trkpt lat="42.44112" lon="0.06257">
        <ele>661.6</ele>
        <time>2016-07-31T09:06:04Z</time>
      </trkpt>
      <trkpt lat="42.44108" lon="0.06256">
        <ele>662.3</ele>
        <time>2016-07-31T09:06:06Z</time>
      </trkpt>
      <trkpt lat="42.44105" lon="0.06253">
        <ele>663.1</ele>
        <time>2016-07-31T09:06:08Z</time>
      </trkpt>
      <trkpt lat="42.44102" lon="0.0625">
        <ele>664.1</ele>
        <time>2016-07-31T09:06:10Z</time>
      </trkpt>
      <trkpt lat="42.44099" lon="0.06248">
        <ele>665</ele>
        <time>2016-07-31T09:06:12Z</time>
      </trkpt>
      <trkpt lat="42.44096" lon="0.06245">
        <ele>665.9</ele>
        <time>2016-07-31T09:06:14Z</time>
      </trkpt>
      <trkpt lat="42.44093" lon="0.06242">
        <ele>666.7</ele>
        <time>2016-07-31T09:06:16Z</time>
      </trkpt>
      <trkpt lat="42.44091" lon="0.0624">
        <ele>667.5</ele>
        <time>2016-07-31T09:06:18Z</time>
      </trkpt>
      <trkpt lat="42.44088" lon="0.06237">
        <ele>668.3</ele>
        <time>2016-07-31T09:06:20Z</time>
      </trkpt>
      <trkpt lat="42.44085" lon="0.06235">
        <ele>669.1</ele>
        <time>2016-07-31T09:06:22Z</time>
      </trkpt>
      <trkpt lat="42.44082" lon="0.06232">
        <ele>669.9</ele>
        <time>2016-07-31T09:06:24Z</time>
      </trkpt>
      <trkpt lat="42.44079" lon="0.0623">
        <ele>670.7</ele>
        <time>2016-07-31T09:06:26Z</time>
      </trkpt>
      <trkpt lat="42.44076" lon="0.06227">
        <ele>671.5</ele>
        <time>2016-07-31T09:06:28Z</time>
      </trkpt>
      <trkpt lat="42.44073" lon="0.06225">
        <ele>672.2</ele>
        <time>2016-07-31T09:06:30Z</time>
      </trkpt>
      <trkpt lat="42.44071" lon="0.06223">
        <ele>672.7</ele>
        <time>2016-07-31T09:06:32Z</time>
      </trkpt>
      <trkpt lat="42.44068" lon="0.06221">
        <ele>673.4</ele>
        <time>2016-07-31T09:06:34Z</time>
      </trkpt>
      <trkpt lat="42.44066" lon="0.06218">
        <ele>674.4</ele>
        <time>2016-07-31T09:06:36Z</time>
      </trkpt>
      <trkpt lat="42.44066" lon="0.06213">
        <ele>675.9</ele>
        <time>2016-07-31T09:06:38Z</time>
      </trkpt>
      <trkpt lat="42.44067" lon="0.06208">
        <ele>677.4</ele>
        <time>2016-07-31T09:06:40Z</time>
      </trkpt>
      <trkpt lat="42.44071" lon="0.06206">
        <ele>678.2</ele>
        <time>2016-07-31T09:06:42Z</time>
      </trkpt>
      <trkpt lat="42.44075" lon="0.06205">
        <ele>678.4</ele>
        <time>2016-07-31T09:06:44Z</time>
      </trkpt>
      <trkpt lat="42.44079" lon="0.06207">
        <ele>677.9</ele>
        <time>2016-07-31T09:06:46Z</time>
      </trkpt>
      <trkpt lat="42.44083" lon="0.06209">
        <ele>677.3</ele>
        <time>2016-07-31T09:06:48Z</time>
      </trkpt>
      <trkpt lat="42.44088" lon="0.06211">
        <ele>676.8</ele>
        <time>2016-07-31T09:06:50Z</time>
      </trkpt>
      <trkpt lat="42.44092" lon="0.06212">
        <ele>676.4</ele>
        <time>2016-07-31T09:06:52Z</time>
      </trkpt>
      <trkpt lat="42.44096" lon="0.06214">
        <ele>675.9</ele>
        <time>2016-07-31T09:06:54Z</time>
      </trkpt>
      <trkpt lat="42.44099" lon="0.06215">
        <ele>675.5</ele>
        <time>2016-07-31T09:06:56Z</time>
      </trkpt>
      <trkpt lat="42.44103" lon="0.06217">
        <ele>675</ele>
        <time>2016-07-31T09:06:58Z</time>
      </trkpt>
      <trkpt lat="42.44107" lon="0.06218">
        <ele>674.6</ele>
        <time>2016-07-31T09:07:00Z</time>
      </trkpt>
      <trkpt lat="42.4411" lon="0.0622">
        <ele>674.1</ele>
        <time>2016-07-31T09:07:02Z</time>
      </trkpt>
      <trkpt lat="42.44114" lon="0.06221">
        <ele>673.6</ele>
        <time>2016-07-31T09:07:04Z</time>
      </trkpt>
      <trkpt lat="42.44117" lon="0.06223">
        <ele>673</ele>
        <time>2016-07-31T09:07:06Z</time>
      </trkpt>
      <trkpt lat="42.44121" lon="0.06224">
        <ele>672.6</ele>
        <time>2016-07-31T09:07:08Z</time>
      </trkpt>
      <trkpt lat="42.44124" lon="0.06225">
        <ele>672.4</ele>
        <time>2016-07-31T09:07:10Z</time>
      </trkpt>
      <trkpt lat="42.44127" lon="0.06226">
        <ele>672.3</ele>
        <time>2016-07-31T09:07:12Z</time>
      </trkpt>
      <trkpt lat="42.4413" lon="0.06226">
        <ele>672.5</ele>
        <time>2016-07-31T09:07:14Z</time>
      </trkpt>
      <trkpt lat="42.44133" lon="0.06225">
        <ele>673.1</ele>
        <time>2016-07-31T09:07:16Z</time>
      </trkpt>
      <trkpt lat="42.44136" lon="0.06223">
        <ele>673.8</ele>
        <time>2016-07-31T09:07:18Z</time>
      </trkpt>
      <trkpt lat="42.44139" lon="0.06221">
        <ele>674.6</ele>
        <time>2016-07-31T09:07:20Z</time>
      </trkpt>
      <trkpt lat="42.44141" lon="0.06218">
        <ele>675.8</ele>
        <time>2016-07-31T09:07:22Z</time>
      </trkpt>
      <trkpt lat="42.44142" lon="0.06214">
        <ele>677.3</ele>
        <time>2016-07-31T09:07:24Z</time>
      </trkpt>
      <trkpt lat="42.44143" lon="0.0621">
        <ele>678.9</ele>
        <time>2016-07-31T09:07:26Z</time>
      </trkpt>
      <trkpt lat="42.44143" lon="0.06205">
        <ele>680.4</ele>
        <time>2016-07-31T09:07:28Z</time>
      </trkpt>
      <trkpt lat="42.44144" lon="0.062">
        <ele>681.8</ele>
        <time>2016-07-31T09:07:30Z</time>
      </trkpt>
      <trkpt lat="42.44144" lon="0.06195">
        <ele>683.3</ele>
        <time>2016-07-31T09:07:32Z</time>
      </trkpt>
      <trkpt lat="42.44145" lon="0.06191">
        <ele>684.6</ele>
        <time>2016-07-31T09:07:34Z</time>
      </trkpt>
      <trkpt lat="42.44148" lon="0.06188">
        <ele>685.8</ele>
        <time>2016-07-31T09:07:36Z</time>
      </trkpt>
      <trkpt lat="42.44151" lon="0.06186">
        <ele>686.6</ele>
        <time>2016-07-31T09:07:38Z</time>
      </trkpt>
      <trkpt lat="42.44154" lon="0.06186">
        <ele>687.2</ele>
        <time>2016-07-31T09:07:40Z</time>
      </trkpt>
      <trkpt lat="42.44158" lon="0.06185">
        <ele>687.7</ele>
        <time>2016-07-31T09:07:42Z</time>
      </trkpt>
      <trkpt lat="42.44162" lon="0.06186">
        <ele>687.7</ele>
        <time>2016-07-31T09:07:44Z</time>
      </trkpt>
      <trkpt lat="42.44165" lon="0.06188">
        <ele>687.4</ele>
        <time>2016-07-31T09:07:46Z</time>
      </trkpt>
      <trkpt lat="42.44168" lon="0.0619">
        <ele>687.1</ele>
        <time>2016-07-31T09:07:48Z</time>
      </trkpt>
      <trkpt lat="42.44172" lon="0.06192">
        <ele>686.9</ele>
        <time>2016-07-31T09:07:50Z</time>
      </trkpt>
      <trkpt lat="42.44175" lon="0.06193">
        <ele>686.7</ele>
        <time>2016-07-31T09:07:52Z</time>
      </trkpt>
      <trkpt lat="42.44178" lon="0.06194">
        <ele>686.5</ele>
        <time>2016-07-31T09:07:54Z</time>
      </trkpt>
      <trkpt lat="42.44181" lon="0.06195">
        <ele>686.5</ele>
        <time>2016-07-31T09:07:56Z</time>
      </trkpt>
      <trkpt lat="42.44184" lon="0.06197">
        <ele>686.3</ele>
        <time>2016-07-31T09:07:58Z</time>
      </trkpt>
      <trkpt lat="42.44187" lon="0.06198">
        <ele>685.9</ele>
        <time>2016-07-31T09:08:00Z</time>
      </trkpt>
      <trkpt lat="42.4419" lon="0.062">
        <ele>685.5</ele>
        <time>2016-07-31T09:08:02Z</time>
      </trkpt>
      <trkpt lat="42.44193" lon="0.06203">
        <ele>684.8</ele>
        <time>2016-07-31T09:08:04Z</time>
      </trkpt>
      <trkpt lat="42.44196" lon="0.06206">
        <ele>684</ele>
        <time>2016-07-31T09:08:06Z</time>
      </trkpt>
      <trkpt lat="42.44199" lon="0.06209">
        <ele>683.1</ele>
        <time>2016-07-31T09:08:08Z</time>
      </trkpt>
      <trkpt lat="42.44201" lon="0.06212">
        <ele>682.3</ele>
        <time>2016-07-31T09:08:10Z</time>
      </trkpt>
      <trkpt lat="42.44204" lon="0.06214">
        <ele>681.6</ele>
        <time>2016-07-31T09:08:12Z</time>
      </trkpt>
      <trkpt lat="42.44207" lon="0.06217">
        <ele>681</ele>
        <time>2016-07-31T09:08:14Z</time>
      </trkpt>
      <trkpt lat="42.4421" lon="0.06219">
        <ele>680.5</ele>
        <time>2016-07-31T09:08:16Z</time>
      </trkpt>
      <trkpt lat="42.44214" lon="0.06221">
        <ele>680.1</ele>
        <time>2016-07-31T09:08:18Z</time>
      </trkpt>
      <trkpt lat="42.44217" lon="0.06223">
        <ele>679.5</ele>
        <time>2016-07-31T09:08:20Z</time>
      </trkpt>
      <trkpt lat="42.4422" lon="0.06225">
        <ele>679.3</ele>
        <time>2016-07-31T09:08:22Z</time>
      </trkpt>
      <trkpt lat="42.44224" lon="0.06225">
        <ele>679.6</ele>
        <time>2016-07-31T09:08:24Z</time>
      </trkpt>
      <trkpt lat="42.44227" lon="0.06226">
        <ele>679.8</ele>
        <time>2016-07-31T09:08:26Z</time>
      </trkpt>
      <trkpt lat="42.44231" lon="0.06226">
        <ele>680.1</ele>
        <time>2016-07-31T09:08:28Z</time>
      </trkpt>
      <trkpt lat="42.44233" lon="0.06224">
        <ele>681</ele>
        <time>2016-07-31T09:08:30Z</time>
      </trkpt>
      <trkpt lat="42.44235" lon="0.0622">
        <ele>682.7</ele>
        <time>2016-07-31T09:08:32Z</time>
      </trkpt>
      <trkpt lat="42.44234" lon="0.06215">
        <ele>684.3</ele>
        <time>2016-07-31T09:08:34Z</time>
      </trkpt>
      <trkpt lat="42.44232" lon="0.06211">
        <ele>685.5</ele>
        <time>2016-07-31T09:08:36Z</time>
      </trkpt>
      <trkpt lat="42.44229" lon="0.06208">
        <ele>686</ele>
        <time>2016-07-31T09:08:38Z</time>
      </trkpt>
      <trkpt lat="42.44226" lon="0.06207">
        <ele>686.3</ele>
        <time>2016-07-31T09:08:40Z</time>
      </trkpt>
      <trkpt lat="42.44223" lon="0.06206">
        <ele>686.4</ele>
        <time>2016-07-31T09:08:42Z</time>
      </trkpt>
      <trkpt lat="42.4422" lon="0.06204">
        <ele>686.5</ele>
        <time>2016-07-31T09:08:44Z</time>
      </trkpt>
      <trkpt lat="42.44217" lon="0.06202">
        <ele>687.2</ele>
        <time>2016-07-31T09:08:46Z</time>
      </trkpt>
      <trkpt lat="42.44214" lon="0.06199">
        <ele>688</ele>
        <time>2016-07-31T09:08:48Z</time>
      </trkpt>
      <trkpt lat="42.44212" lon="0.06196">
        <ele>688.9</ele>
        <time>2016-07-31T09:08:50Z</time>
      </trkpt>
      <trkpt lat="42.44209" lon="0.06193">
        <ele>689.7</ele>
        <time>2016-07-31T09:08:52Z</time>
      </trkpt>
      <trkpt lat="42.44206" lon="0.0619">
        <ele>690.5</ele>
        <time>2016-07-31T09:08:54Z</time>
      </trkpt>
      <trkpt lat="42.44204" lon="0.06188">
        <ele>691.2</ele>
        <time>2016-07-31T09:08:56Z</time>
      </trkpt>
      <trkpt lat="42.44201" lon="0.06185">
        <ele>691.8</ele>
        <time>2016-07-31T09:08:58Z</time>
      </trkpt>
      <trkpt lat="42.44198" lon="0.06183">
        <ele>692.4</ele>
        <time>2016-07-31T09:09:00Z</time>
      </trkpt>
      <trkpt lat="42.44196" lon="0.06181">
        <ele>693</ele>
        <time>2016-07-31T09:09:02Z</time>
      </trkpt>
      <trkpt lat="42.44193" lon="0.06179">
        <ele>693.4</ele>
        <time>2016-07-31T09:09:04Z</time>
      </trkpt>
      <trkpt lat="42.44191" lon="0.06176">
        <ele>694.1</ele>
        <time>2016-07-31T09:09:06Z</time>
      </trkpt>
      <trkpt lat="42.44189" lon="0.06173">
        <ele>694.9</ele>
        <time>2016-07-31T09:09:08Z</time>
      </trkpt>
      <trkpt lat="42.44187" lon="0.06171">
        <ele>695.6</ele>
        <time>2016-07-31T09:09:10Z</time>
      </trkpt>
      <trkpt lat="42.44184" lon="0.06168">
        <ele>696.2</ele>
        <time>2016-07-31T09:09:12Z</time>
      </trkpt>
      <trkpt lat="42.44182" lon="0.06165">
        <ele>697</ele>
        <time>2016-07-31T09:09:14Z</time>
      </trkpt>
      <trkpt lat="42.44179" lon="0.06162">
        <ele>697.7</ele>
        <time>2016-07-31T09:09:16Z</time>
      </trkpt>
      <trkpt lat="42.44178" lon="0.06158">
        <ele>698.8</ele>
        <time>2016-07-31T09:09:18Z</time>
      </trkpt>
      <trkpt lat="42.44179" lon="0.06154">
        <ele>700.2</ele>
        <time>2016-07-31T09:09:20Z</time>
      </trkpt>
      <trkpt lat="42.44182" lon="0.06152">
        <ele>701.3</ele>
        <time>2016-07-31T09:09:22Z</time>
      </trkpt>
      <trkpt lat="42.44185" lon="0.06151">
        <ele>702</ele>
        <time>2016-07-31T09:09:24Z</time>
      </trkpt>
      <trkpt lat="42.44188" lon="0.06152">
        <ele>702.3</ele>
        <time>2016-07-31T09:09:26Z</time>
      </trkpt>
      <trkpt lat="42.44191" lon="0.06153">
        <ele>702.2</ele>
        <time>2016-07-31T09:09:28Z</time>
      </trkpt>
      <trkpt lat="42.44195" lon="0.06156">
        <ele>701.8</ele>
        <time>2016-07-31T09:09:30Z</time>
      </trkpt>
      <trkpt lat="42.44198" lon="0.06158">
        <ele>701.4</ele>
        <time>2016-07-31T09:09:32Z</time>
      </trkpt>
      <trkpt lat="42.44201" lon="0.0616">
        <ele>701.1</ele>
        <time>2016-07-31T09:09:34Z</time>
      </trkpt>
      <trkpt lat="42.44204" lon="0.06162">
        <ele>700.6</ele>
        <time>2016-07-31T09:09:36Z</time>
      </trkpt>
      <trkpt lat="42.44207" lon="0.06164">
        <ele>700.4</ele>
        <time>2016-07-31T09:09:38Z</time>
      </trkpt>
      <trkpt lat="42.4421" lon="0.06165">
        <ele>700.2</ele>
        <time>2016-07-31T09:09:40Z</time>
      </trkpt>
      <trkpt lat="42.44213" lon="0.06166">
        <ele>700</ele>
        <time>2016-07-31T09:09:42Z</time>
      </trkpt>
      <trkpt lat="42.44216" lon="0.06167">
        <ele>699.7</ele>
        <time>2016-07-31T09:09:44Z</time>
      </trkpt>
      <trkpt lat="42.44219" lon="0.06169">
        <ele>699.3</ele>
        <time>2016-07-31T09:09:46Z</time>
      </trkpt>
      <trkpt lat="42.44222" lon="0.0617">
        <ele>699</ele>
        <time>2016-07-31T09:09:48Z</time>
      </trkpt>
      <trkpt lat="42.44225" lon="0.06171">
        <ele>698.7</ele>
        <time>2016-07-31T09:09:50Z</time>
      </trkpt>
      <trkpt lat="42.44228" lon="0.06173">
        <ele>698.3</ele>
        <time>2016-07-31T09:09:52Z</time>
      </trkpt>
      <trkpt lat="42.44231" lon="0.06175">
        <ele>698</ele>
        <time>2016-07-31T09:09:54Z</time>
      </trkpt>
      <trkpt lat="42.44234" lon="0.06175">
        <ele>698.1</ele>
        <time>2016-07-31T09:09:56Z</time>
      </trkpt>
      <trkpt lat="42.44237" lon="0.06175">
        <ele>698.1</ele>
        <time>2016-07-31T09:09:58Z</time>
      </trkpt>
      <trkpt lat="42.4424" lon="0.06175">
        <ele>698.3</ele>
        <time>2016-07-31T09:10:00Z</time>
      </trkpt>
      <trkpt lat="42.44242" lon="0.06173">
        <ele>699.1</ele>
        <time>2016-07-31T09:10:02Z</time>
      </trkpt>
      <trkpt lat="42.44244" lon="0.06171">
        <ele>700.1</ele>
        <time>2016-07-31T09:10:04Z</time>
      </trkpt>
      <trkpt lat="42.44247" lon="0.06167">
        <ele>701.5</ele>
        <time>2016-07-31T09:10:07Z</time>
      </trkpt>
      <trkpt lat="42.44247" lon="0.06163">
        <ele>702.8</ele>
        <time>2016-07-31T09:10:09Z</time>
      </trkpt>
      <trkpt lat="42.44248" lon="0.0616">
        <ele>704</ele>
        <time>2016-07-31T09:10:11Z</time>
      </trkpt>
      <trkpt lat="42.44248" lon="0.06156">
        <ele>705.2</ele>
        <time>2016-07-31T09:10:13Z</time>
      </trkpt>
      <trkpt lat="42.44245" lon="0.06151">
        <ele>706.7</ele>
        <time>2016-07-31T09:10:16Z</time>
      </trkpt>
      <trkpt lat="42.44243" lon="0.06149">
        <ele>707.3</ele>
        <time>2016-07-31T09:10:18Z</time>
      </trkpt>
      <trkpt lat="42.4424" lon="0.06148">
        <ele>707.5</ele>
        <time>2016-07-31T09:10:20Z</time>
      </trkpt>
      <trkpt lat="42.44237" lon="0.06148">
        <ele>707.5</ele>
        <time>2016-07-31T09:10:22Z</time>
      </trkpt>
      <trkpt lat="42.44234" lon="0.06147">
        <ele>707.6</ele>
        <time>2016-07-31T09:10:24Z</time>
      </trkpt>
      <trkpt lat="42.44231" lon="0.06147">
        <ele>707.7</ele>
        <time>2016-07-31T09:10:26Z</time>
      </trkpt>
      <trkpt lat="42.44228" lon="0.06147">
        <ele>707.7</ele>
        <time>2016-07-31T09:10:28Z</time>
      </trkpt>
      <trkpt lat="42.44225" lon="0.06145">
        <ele>708.2</ele>
        <time>2016-07-31T09:10:31Z</time>
      </trkpt>
      <trkpt lat="42.44222" lon="0.06143">
        <ele>708.9</ele>
        <time>2016-07-31T09:10:33Z</time>
      </trkpt>
      <trkpt lat="42.4422" lon="0.0614">
        <ele>709.7</ele>
        <time>2016-07-31T09:10:35Z</time>
      </trkpt>
      <trkpt lat="42.44217" lon="0.06138">
        <ele>710.4</ele>
        <time>2016-07-31T09:10:37Z</time>
      </trkpt>
      <trkpt lat="42.44215" lon="0.06136">
        <ele>711.2</ele>
        <time>2016-07-31T09:10:39Z</time>
      </trkpt>
      <trkpt lat="42.44211" lon="0.06133">
        <ele>712.2</ele>
        <time>2016-07-31T09:10:42Z</time>
      </trkpt>
      <trkpt lat="42.4421" lon="0.0613">
        <ele>713.2</ele>
        <time>2016-07-31T09:10:44Z</time>
      </trkpt>
      <trkpt lat="42.44208" lon="0.06126">
        <ele>714.6</ele>
        <time>2016-07-31T09:10:47Z</time>
      </trkpt>
      <trkpt lat="42.44209" lon="0.06121">
        <ele>716.2</ele>
        <time>2016-07-31T09:10:50Z</time>
      </trkpt>
      <trkpt lat="42.44212" lon="0.06119">
        <ele>716.7</ele>
        <time>2016-07-31T09:10:52Z</time>
      </trkpt>
      <trkpt lat="42.44215" lon="0.0612">
        <ele>716.5</ele>
        <time>2016-07-31T09:10:54Z</time>
      </trkpt>
      <trkpt lat="42.44218" lon="0.06122">
        <ele>716</ele>
        <time>2016-07-31T09:10:56Z</time>
      </trkpt>
      <trkpt lat="42.44221" lon="0.06124">
        <ele>715.4</ele>
        <time>2016-07-31T09:10:58Z</time>
      </trkpt>
      <trkpt lat="42.44224" lon="0.06126">
        <ele>714.7</ele>
        <time>2016-07-31T09:11:00Z</time>
      </trkpt>
      <trkpt lat="42.44227" lon="0.06128">
        <ele>714.1</ele>
        <time>2016-07-31T09:11:02Z</time>
      </trkpt>
      <trkpt lat="42.4423" lon="0.0613">
        <ele>713.6</ele>
        <time>2016-07-31T09:11:04Z</time>
      </trkpt>
      <trkpt lat="42.44233" lon="0.06131">
        <ele>713.3</ele>
        <time>2016-07-31T09:11:06Z</time>
      </trkpt>
      <trkpt lat="42.44237" lon="0.06132">
        <ele>713.1</ele>
        <time>2016-07-31T09:11:09Z</time>
      </trkpt>
      <trkpt lat="42.4424" lon="0.0613">
        <ele>713.8</ele>
        <time>2016-07-31T09:11:12Z</time>
      </trkpt>
      <trkpt lat="42.44242" lon="0.06126">
        <ele>715</ele>
        <time>2016-07-31T09:11:14Z</time>
      </trkpt>
      <trkpt lat="42.44244" lon="0.06122">
        <ele>716.2</ele>
        <time>2016-07-31T09:11:16Z</time>
      </trkpt>
      <trkpt lat="42.44245" lon="0.06118">
        <ele>717.4</ele>
        <time>2016-07-31T09:11:18Z</time>
      </trkpt>
      <trkpt lat="42.44245" lon="0.06114">
        <ele>718.8</ele>
        <time>2016-07-31T09:11:20Z</time>
      </trkpt>
      <trkpt lat="42.44245" lon="0.0611">
        <ele>720.1</ele>
        <time>2016-07-31T09:11:22Z</time>
      </trkpt>
      <trkpt lat="42.44244" lon="0.06105">
        <ele>721.6</ele>
        <time>2016-07-31T09:11:24Z</time>
      </trkpt>
      <trkpt lat="42.44245" lon="0.061">
        <ele>722.9</ele>
        <time>2016-07-31T09:11:26Z</time>
      </trkpt>
      <trkpt lat="42.44246" lon="0.06096">
        <ele>724.2</ele>
        <time>2016-07-31T09:11:28Z</time>
      </trkpt>
      <trkpt lat="42.44247" lon="0.06092">
        <ele>725.4</ele>
        <time>2016-07-31T09:11:30Z</time>
      </trkpt>
      <trkpt lat="42.44249" lon="0.06089">
        <ele>726.4</ele>
        <time>2016-07-31T09:11:32Z</time>
      </trkpt>
      <trkpt lat="42.44252" lon="0.06087">
        <ele>727.2</ele>
        <time>2016-07-31T09:11:34Z</time>
      </trkpt>
      <trkpt lat="42.44254" lon="0.06085">
        <ele>728</ele>
        <time>2016-07-31T09:11:36Z</time>
      </trkpt>
      <trkpt lat="42.44257" lon="0.06083">
        <ele>728.7</ele>
        <time>2016-07-31T09:11:38Z</time>
      </trkpt>
      <trkpt lat="42.4426" lon="0.06082">
        <ele>729</ele>
        <time>2016-07-31T09:11:40Z</time>
      </trkpt>
      <trkpt lat="42.44264" lon="0.06083">
        <ele>728.7</ele>
        <time>2016-07-31T09:11:43Z</time>
      </trkpt>
      <trkpt lat="42.44267" lon="0.06086">
        <ele>728</ele>
        <time>2016-07-31T09:11:45Z</time>
      </trkpt>
      <trkpt lat="42.4427" lon="0.06089">
        <ele>727.1</ele>
        <time>2016-07-31T09:11:47Z</time>
      </trkpt>
      <trkpt lat="42.44273" lon="0.06092">
        <ele>726.1</ele>
        <time>2016-07-31T09:11:49Z</time>
      </trkpt>
      <trkpt lat="42.44276" lon="0.06096">
        <ele>725.1</ele>
        <time>2016-07-31T09:11:51Z</time>
      </trkpt>
      <trkpt lat="42.44279" lon="0.061">
        <ele>724</ele>
        <time>2016-07-31T09:11:53Z</time>
      </trkpt>
      <trkpt lat="42.44282" lon="0.06103">
        <ele>722.9</ele>
        <time>2016-07-31T09:11:55Z</time>
      </trkpt>
      <trkpt lat="42.44285" lon="0.06107">
        <ele>721.8</ele>
        <time>2016-07-31T09:11:57Z</time>
      </trkpt>
      <trkpt lat="42.44288" lon="0.0611">
        <ele>720.7</ele>
        <time>2016-07-31T09:11:59Z</time>
      </trkpt>
      <trkpt lat="42.4429" lon="0.06114">
        <ele>719.5</ele>
        <time>2016-07-31T09:12:01Z</time>
      </trkpt>
      <trkpt lat="42.44293" lon="0.06118">
        <ele>718.3</ele>
        <time>2016-07-31T09:12:03Z</time>
      </trkpt>
      <trkpt lat="42.44296" lon="0.06122">
        <ele>717.4</ele>
        <time>2016-07-31T09:12:05Z</time>
      </trkpt>
      <trkpt lat="42.44299" lon="0.06126">
        <ele>716.7</ele>
        <time>2016-07-31T09:12:07Z</time>
      </trkpt>
      <trkpt lat="42.44302" lon="0.06129">
        <ele>716</ele>
        <time>2016-07-31T09:12:09Z</time>
      </trkpt>
      <trkpt lat="42.44305" lon="0.06133">
        <ele>715.4</ele>
        <time>2016-07-31T09:12:11Z</time>
      </trkpt>
      <trkpt lat="42.44307" lon="0.06136">
        <ele>714.8</ele>
        <time>2016-07-31T09:12:13Z</time>
      </trkpt>
      <trkpt lat="42.4431" lon="0.06139">
        <ele>714.2</ele>
        <time>2016-07-31T09:12:15Z</time>
      </trkpt>
      <trkpt lat="42.44313" lon="0.06142">
        <ele>713.8</ele>
        <time>2016-07-31T09:12:17Z</time>
      </trkpt>
      <trkpt lat="42.44316" lon="0.06144">
        <ele>713.5</ele>
        <time>2016-07-31T09:12:19Z</time>
      </trkpt>
      <trkpt lat="42.44319" lon="0.06146">
        <ele>713.3</ele>
        <time>2016-07-31T09:12:21Z</time>
      </trkpt>
      <trkpt lat="42.44323" lon="0.06148">
        <ele>713.2</ele>
        <time>2016-07-31T09:12:23Z</time>
      </trkpt>
      <trkpt lat="42.44326" lon="0.06149">
        <ele>713.2</ele>
        <time>2016-07-31T09:12:25Z</time>
      </trkpt>
      <trkpt lat="42.44329" lon="0.06151">
        <ele>713.1</ele>
        <time>2016-07-31T09:12:27Z</time>
      </trkpt>
      <trkpt lat="42.44331" lon="0.06153">
        <ele>712.8</ele>
        <time>2016-07-31T09:12:29Z</time>
      </trkpt>
      <trkpt lat="42.44334" lon="0.06153">
        <ele>713.1</ele>
        <time>2016-07-31T09:12:31Z</time>
      </trkpt>
      <trkpt lat="42.44336" lon="0.0615">
        <ele>714.3</ele>
        <time>2016-07-31T09:12:33Z</time>
      </trkpt>
      <trkpt lat="42.44337" lon="0.06145">
        <ele>715.8</ele>
        <time>2016-07-31T09:12:35Z</time>
      </trkpt>
      <trkpt lat="42.44336" lon="0.0614">
        <ele>717.1</ele>
        <time>2016-07-31T09:12:37Z</time>
      </trkpt>
      <trkpt lat="42.44334" lon="0.06136">
        <ele>717.9</ele>
        <time>2016-07-31T09:12:39Z</time>
      </trkpt>
      <trkpt lat="42.44331" lon="0.06133">
        <ele>718.4</ele>
        <time>2016-07-31T09:12:41Z</time>
      </trkpt>
      <trkpt lat="42.44328" lon="0.0613">
        <ele>719</ele>
        <time>2016-07-31T09:12:43Z</time>
      </trkpt>
      <trkpt lat="42.44326" lon="0.06127">
        <ele>719.6</ele>
        <time>2016-07-31T09:12:45Z</time>
      </trkpt>
      <trkpt lat="42.44324" lon="0.06124">
        <ele>720.1</ele>
        <time>2016-07-31T09:12:47Z</time>
      </trkpt>
      <trkpt lat="42.44321" lon="0.06121">
        <ele>720.8</ele>
        <time>2016-07-31T09:12:49Z</time>
      </trkpt>
      <trkpt lat="42.4432" lon="0.06118">
        <ele>721.7</ele>
        <time>2016-07-31T09:12:51Z</time>
      </trkpt>
      <trkpt lat="42.44319" lon="0.06115">
        <ele>722.6</ele>
        <time>2016-07-31T09:12:53Z</time>
      </trkpt>
      <trkpt lat="42.44316" lon="0.06111">
        <ele>723.4</ele>
        <time>2016-07-31T09:12:55Z</time>
      </trkpt>
      <trkpt lat="42.44314" lon="0.06108">
        <ele>724.1</ele>
        <time>2016-07-31T09:12:57Z</time>
      </trkpt>
      <trkpt lat="42.44312" lon="0.06105">
        <ele>724.9</ele>
        <time>2016-07-31T09:12:59Z</time>
      </trkpt>
      <trkpt lat="42.4431" lon="0.06102">
        <ele>725.6</ele>
        <time>2016-07-31T09:13:01Z</time>
      </trkpt>
      <trkpt lat="42.44308" lon="0.06099">
        <ele>726.4</ele>
        <time>2016-07-31T09:13:03Z</time>
      </trkpt>
      <trkpt lat="42.44306" lon="0.06095">
        <ele>727.3</ele>
        <time>2016-07-31T09:13:05Z</time>
      </trkpt>
      <trkpt lat="42.44304" lon="0.06092">
        <ele>728.2</ele>
        <time>2016-07-31T09:13:07Z</time>
      </trkpt>
      <trkpt lat="42.44302" lon="0.06089">
        <ele>729</ele>
        <time>2016-07-31T09:13:09Z</time>
      </trkpt>
      <trkpt lat="42.443" lon="0.06085">
        <ele>730</ele>
        <time>2016-07-31T09:13:11Z</time>
      </trkpt>
      <trkpt lat="42.44298" lon="0.06081">
        <ele>730.9</ele>
        <time>2016-07-31T09:13:13Z</time>
      </trkpt>
      <trkpt lat="42.44296" lon="0.06078">
        <ele>731.7</ele>
        <time>2016-07-31T09:13:15Z</time>
      </trkpt>
      <trkpt lat="42.44294" lon="0.06075">
        <ele>732.6</ele>
        <time>2016-07-31T09:13:17Z</time>
      </trkpt>
      <trkpt lat="42.44292" lon="0.06071">
        <ele>733.4</ele>
        <time>2016-07-31T09:13:19Z</time>
      </trkpt>
      <trkpt lat="42.4429" lon="0.06068">
        <ele>734.4</ele>
        <time>2016-07-31T09:13:21Z</time>
      </trkpt>
      <trkpt lat="42.44288" lon="0.06064">
        <ele>735.7</ele>
        <time>2016-07-31T09:13:23Z</time>
      </trkpt>
      <trkpt lat="42.44286" lon="0.0606">
        <ele>736.8</ele>
        <time>2016-07-31T09:13:25Z</time>
      </trkpt>
      <trkpt lat="42.44284" lon="0.06057">
        <ele>737.7</ele>
        <time>2016-07-31T09:13:27Z</time>
      </trkpt>
      <trkpt lat="42.44281" lon="0.06052">
        <ele>739.3</ele>
        <time>2016-07-31T09:13:30Z</time>
      </trkpt>
      <trkpt lat="42.44279" lon="0.06049">
        <ele>740.2</ele>
        <time>2016-07-31T09:13:32Z</time>
      </trkpt>
      <trkpt lat="42.44276" lon="0.06046">
        <ele>741</ele>
        <time>2016-07-31T09:13:34Z</time>
      </trkpt>
      <trkpt lat="42.44273" lon="0.06043">
        <ele>741.8</ele>
        <time>2016-07-31T09:13:36Z</time>
      </trkpt>
      <trkpt lat="42.44269" lon="0.0604">
        <ele>742.6</ele>
        <time>2016-07-31T09:13:38Z</time>
      </trkpt>
      <trkpt lat="42.44265" lon="0.06037">
        <ele>743.2</ele>
        <time>2016-07-31T09:13:40Z</time>
      </trkpt>
      <trkpt lat="42.44261" lon="0.06035">
        <ele>743.5</ele>
        <time>2016-07-31T09:13:42Z</time>
      </trkpt>
      <trkpt lat="42.44256" lon="0.06034">
        <ele>743.7</ele>
        <time>2016-07-31T09:13:44Z</time>
      </trkpt>
      <trkpt lat="42.44252" lon="0.06033">
        <ele>743.8</ele>
        <time>2016-07-31T09:13:46Z</time>
      </trkpt>
      <trkpt lat="42.44247" lon="0.06033">
        <ele>743.6</ele>
        <time>2016-07-31T09:13:48Z</time>
      </trkpt>
      <trkpt lat="42.44243" lon="0.06034">
        <ele>742.8</ele>
        <time>2016-07-31T09:13:50Z</time>
      </trkpt>
      <trkpt lat="42.44239" lon="0.06037">
        <ele>741.8</ele>
        <time>2016-07-31T09:13:52Z</time>
      </trkpt>
      <trkpt lat="42.44235" lon="0.0604">
        <ele>740.7</ele>
        <time>2016-07-31T09:13:54Z</time>
      </trkpt>
      <trkpt lat="42.44231" lon="0.06043">
        <ele>739.7</ele>
        <time>2016-07-31T09:13:56Z</time>
      </trkpt>
      <trkpt lat="42.44227" lon="0.06045">
        <ele>738.8</ele>
        <time>2016-07-31T09:13:58Z</time>
      </trkpt>
      <trkpt lat="42.44223" lon="0.06046">
        <ele>738.3</ele>
        <time>2016-07-31T09:14:00Z</time>
      </trkpt>
      <trkpt lat="42.44219" lon="0.06046">
        <ele>738.4</ele>
        <time>2016-07-31T09:14:02Z</time>
      </trkpt>
      <trkpt lat="42.44216" lon="0.06045">
        <ele>738.5</ele>
        <time>2016-07-31T09:14:04Z</time>
      </trkpt>
      <trkpt lat="42.44212" lon="0.06044">
        <ele>738.6</ele>
        <time>2016-07-31T09:14:06Z</time>
      </trkpt>
      <trkpt lat="42.44208" lon="0.06043">
        <ele>738.6</ele>
        <time>2016-07-31T09:14:08Z</time>
      </trkpt>
      <trkpt lat="42.44204" lon="0.06042">
        <ele>738.6</ele>
        <time>2016-07-31T09:14:10Z</time>
      </trkpt>
      <trkpt lat="42.442" lon="0.0604">
        <ele>738.6</ele>
        <time>2016-07-31T09:14:12Z</time>
      </trkpt>
      <trkpt lat="42.44196" lon="0.06038">
        <ele>738.6</ele>
        <time>2016-07-31T09:14:14Z</time>
      </trkpt>
      <trkpt lat="42.44192" lon="0.06037">
        <ele>738.7</ele>
        <time>2016-07-31T09:14:16Z</time>
      </trkpt>
      <trkpt lat="42.44189" lon="0.06035">
        <ele>738.7</ele>
        <time>2016-07-31T09:14:18Z</time>
      </trkpt>
      <trkpt lat="42.44185" lon="0.06034">
        <ele>738.8</ele>
        <time>2016-07-31T09:14:20Z</time>
      </trkpt>
      <trkpt lat="42.44181" lon="0.06032">
        <ele>738.8</ele>
        <time>2016-07-31T09:14:22Z</time>
      </trkpt>
      <trkpt lat="42.44178" lon="0.0603">
        <ele>739</ele>
        <time>2016-07-31T09:14:24Z</time>
      </trkpt>
      <trkpt lat="42.44174" lon="0.06028">
        <ele>739.4</ele>
        <time>2016-07-31T09:14:26Z</time>
      </trkpt>
      <trkpt lat="42.44171" lon="0.06025">
        <ele>739.7</ele>
        <time>2016-07-31T09:14:28Z</time>
      </trkpt>
      <trkpt lat="42.44167" lon="0.06022">
        <ele>740.2</ele>
        <time>2016-07-31T09:14:30Z</time>
      </trkpt>
      <trkpt lat="42.44164" lon="0.06019">
        <ele>740.8</ele>
        <time>2016-07-31T09:14:32Z</time>
      </trkpt>
      <trkpt lat="42.4416" lon="0.06015">
        <ele>741.4</ele>
        <time>2016-07-31T09:14:34Z</time>
      </trkpt>
      <trkpt lat="42.44157" lon="0.06011">
        <ele>742.2</ele>
        <time>2016-07-31T09:14:36Z</time>
      </trkpt>
      <trkpt lat="42.44154" lon="0.06007">
        <ele>743.1</ele>
        <time>2016-07-31T09:14:38Z</time>
      </trkpt>
      <trkpt lat="42.4415" lon="0.06003">
        <ele>743.9</ele>
        <time>2016-07-31T09:14:40Z</time>
      </trkpt>
      <trkpt lat="42.44146" lon="0.06">
        <ele>744.5</ele>
        <time>2016-07-31T09:14:42Z</time>
      </trkpt>
      <trkpt lat="42.44143" lon="0.05996">
        <ele>745</ele>
        <time>2016-07-31T09:14:44Z</time>
      </trkpt>
      <trkpt lat="42.44139" lon="0.05993">
        <ele>745.7</ele>
        <time>2016-07-31T09:14:46Z</time>
      </trkpt>
      <trkpt lat="42.44135" lon="0.05989">
        <ele>746.3</ele>
        <time>2016-07-31T09:14:48Z</time>
      </trkpt>
      <trkpt lat="42.44131" lon="0.05986">
        <ele>746.7</ele>
        <time>2016-07-31T09:14:50Z</time>
      </trkpt>
      <trkpt lat="42.44127" lon="0.05983">
        <ele>747.2</ele>
        <time>2016-07-31T09:14:52Z</time>
      </trkpt>
      <trkpt lat="42.44123" lon="0.0598">
        <ele>747.7</ele>
        <time>2016-07-31T09:14:54Z</time>
      </trkpt>
      <trkpt lat="42.44118" lon="0.05978">
        <ele>748.3</ele>
        <time>2016-07-31T09:14:56Z</time>
      </trkpt>
      <trkpt lat="42.44114" lon="0.05976">
        <ele>749</ele>
        <time>2016-07-31T09:14:58Z</time>
      </trkpt>
      <trkpt lat="42.44109" lon="0.05975">
        <ele>749.6</ele>
        <time>2016-07-31T09:15:00Z</time>
      </trkpt>
      <trkpt lat="42.44105" lon="0.05972">
        <ele>750.2</ele>
        <time>2016-07-31T09:15:02Z</time>
      </trkpt>
      <trkpt lat="42.441" lon="0.0597">
        <ele>750.8</ele>
        <time>2016-07-31T09:15:04Z</time>
      </trkpt>
      <trkpt lat="42.44096" lon="0.05968">
        <ele>751.4</ele>
        <time>2016-07-31T09:15:06Z</time>
      </trkpt>
      <trkpt lat="42.44092" lon="0.05966">
        <ele>752.1</ele>
        <time>2016-07-31T09:15:08Z</time>
      </trkpt>
      <trkpt lat="42.44088" lon="0.05963">
        <ele>752.8</ele>
        <time>2016-07-31T09:15:10Z</time>
      </trkpt>
      <trkpt lat="42.44084" lon="0.0596">
        <ele>753.5</ele>
        <time>2016-07-31T09:15:12Z</time>
      </trkpt>
      <trkpt lat="42.44081" lon="0.05958">
        <ele>754.1</ele>
        <time>2016-07-31T09:15:14Z</time>
      </trkpt>
      <trkpt lat="42.44077" lon="0.05955">
        <ele>754.6</ele>
        <time>2016-07-31T09:15:16Z</time>
      </trkpt>
      <trkpt lat="42.44073" lon="0.05953">
        <ele>755</ele>
        <time>2016-07-31T09:15:18Z</time>
      </trkpt>
      <trkpt lat="42.4407" lon="0.0595">
        <ele>755.5</ele>
        <time>2016-07-31T09:15:20Z</time>
      </trkpt>
      <trkpt lat="42.44066" lon="0.05948">
        <ele>755.9</ele>
        <time>2016-07-31T09:15:22Z</time>
      </trkpt>
      <trkpt lat="42.44063" lon="0.05946">
        <ele>756.3</ele>
        <time>2016-07-31T09:15:24Z</time>
      </trkpt>
      <trkpt lat="42.4406" lon="0.05944">
        <ele>756.7</ele>
        <time>2016-07-31T09:15:26Z</time>
      </trkpt>
      <trkpt lat="42.44057" lon="0.05941">
        <ele>757.1</ele>
        <time>2016-07-31T09:15:28Z</time>
      </trkpt>
      <trkpt lat="42.44054" lon="0.05939">
        <ele>757.5</ele>
        <time>2016-07-31T09:15:30Z</time>
      </trkpt>
      <trkpt lat="42.4405" lon="0.05937">
        <ele>757.7</ele>
        <time>2016-07-31T09:15:32Z</time>
      </trkpt>
      <trkpt lat="42.44046" lon="0.05936">
        <ele>757.8</ele>
        <time>2016-07-31T09:15:34Z</time>
      </trkpt>
      <trkpt lat="42.44042" lon="0.05935">
        <ele>757.9</ele>
        <time>2016-07-31T09:15:36Z</time>
      </trkpt>
      <trkpt lat="42.44038" lon="0.05934">
        <ele>758.1</ele>
        <time>2016-07-31T09:15:38Z</time>
      </trkpt>
      <trkpt lat="42.44034" lon="0.05933">
        <ele>758.2</ele>
        <time>2016-07-31T09:15:40Z</time>
      </trkpt>
      <trkpt lat="42.44031" lon="0.05931">
        <ele>758.4</ele>
        <time>2016-07-31T09:15:42Z</time>
      </trkpt>
      <trkpt lat="42.44028" lon="0.0593">
        <ele>758.5</ele>
        <time>2016-07-31T09:15:44Z</time>
      </trkpt>
      <trkpt lat="42.44025" lon="0.0593">
        <ele>758.6</ele>
        <time>2016-07-31T09:15:46Z</time>
      </trkpt>
      <trkpt lat="42.44021" lon="0.05929">
        <ele>758.6</ele>
        <time>2016-07-31T09:15:48Z</time>
      </trkpt>
      <trkpt lat="42.44018" lon="0.05929">
        <ele>758.6</ele>
        <time>2016-07-31T09:15:50Z</time>
      </trkpt>
      <trkpt lat="42.44015" lon="0.05928">
        <ele>758.7</ele>
        <time>2016-07-31T09:15:52Z</time>
      </trkpt>
      <trkpt lat="42.44011" lon="0.05927">
        <ele>758.8</ele>
        <time>2016-07-31T09:15:54Z</time>
      </trkpt>
      <trkpt lat="42.44008" lon="0.05926">
        <ele>759</ele>
        <time>2016-07-31T09:15:56Z</time>
      </trkpt>
      <trkpt lat="42.44005" lon="0.05924">
        <ele>759.2</ele>
        <time>2016-07-31T09:15:58Z</time>
      </trkpt>
      <trkpt lat="42.44002" lon="0.05922">
        <ele>759.4</ele>
        <time>2016-07-31T09:16:00Z</time>
      </trkpt>
      <trkpt lat="42.44" lon="0.05922">
        <ele>759.4</ele>
        <time>2016-07-31T09:16:02Z</time>
      </trkpt>
      <trkpt lat="42.43997" lon="0.05921">
        <ele>759.6</ele>
        <time>2016-07-31T09:16:04Z</time>
      </trkpt>
      <trkpt lat="42.43994" lon="0.0592">
        <ele>759.7</ele>
        <time>2016-07-31T09:16:06Z</time>
      </trkpt>
      <trkpt lat="42.43991" lon="0.05919">
        <ele>759.8</ele>
        <time>2016-07-31T09:16:08Z</time>
      </trkpt>
      <trkpt lat="42.43988" lon="0.05917">
        <ele>760</ele>
        <time>2016-07-31T09:16:10Z</time>
      </trkpt>
      <trkpt lat="42.43985" lon="0.05916">
        <ele>760.1</ele>
        <time>2016-07-31T09:16:12Z</time>
      </trkpt>
      <trkpt lat="42.43981" lon="0.05915">
        <ele>760.2</ele>
        <time>2016-07-31T09:16:14Z</time>
      </trkpt>
      <trkpt lat="42.43978" lon="0.05913">
        <ele>760.4</ele>
        <time>2016-07-31T09:16:16Z</time>
      </trkpt>
      <trkpt lat="42.43975" lon="0.05912">
        <ele>760.5</ele>
        <time>2016-07-31T09:16:18Z</time>
      </trkpt>
      <trkpt lat="42.43971" lon="0.05911">
        <ele>760.7</ele>
        <time>2016-07-31T09:16:20Z</time>
      </trkpt>
      <trkpt lat="42.43968" lon="0.0591">
        <ele>760.8</ele>
        <time>2016-07-31T09:16:22Z</time>
      </trkpt>
      <trkpt lat="42.43965" lon="0.05909">
        <ele>760.9</ele>
        <time>2016-07-31T09:16:24Z</time>
      </trkpt>
      <trkpt lat="42.43961" lon="0.05908">
        <ele>760.9</ele>
        <time>2016-07-31T09:16:26Z</time>
      </trkpt>
      <trkpt lat="42.43958" lon="0.05908">
        <ele>760.8</ele>
        <time>2016-07-31T09:16:28Z</time>
      </trkpt>
      <trkpt lat="42.43955" lon="0.05908">
        <ele>760.7</ele>
        <time>2016-07-31T09:16:30Z</time>
      </trkpt>
      <trkpt lat="42.43951" lon="0.05907">
        <ele>760.7</ele>
        <time>2016-07-31T09:16:32Z</time>
      </trkpt>
      <trkpt lat="42.43948" lon="0.05906">
        <ele>760.6</ele>
        <time>2016-07-31T09:16:34Z</time>
      </trkpt>
      <trkpt lat="42.43944" lon="0.05905">
        <ele>760.6</ele>
        <time>2016-07-31T09:16:36Z</time>
      </trkpt>
      <trkpt lat="42.4394" lon="0.05904">
        <ele>760.6</ele>
        <time>2016-07-31T09:16:38Z</time>
      </trkpt>
      <trkpt lat="42.43936" lon="0.05903">
        <ele>760.6</ele>
        <time>2016-07-31T09:16:40Z</time>
      </trkpt>
      <trkpt lat="42.43932" lon="0.05901">
        <ele>760.7</ele>
        <time>2016-07-31T09:16:42Z</time>
      </trkpt>
      <trkpt lat="42.43928" lon="0.059">
        <ele>760.8</ele>
        <time>2016-07-31T09:16:44Z</time>
      </trkpt>
      <trkpt lat="42.43924" lon="0.05899">
        <ele>760.8</ele>
        <time>2016-07-31T09:16:46Z</time>
      </trkpt>
      <trkpt lat="42.4392" lon="0.05896">
        <ele>761.2</ele>
        <time>2016-07-31T09:16:48Z</time>
      </trkpt>
      <trkpt lat="42.43918" lon="0.05892">
        <ele>761.9</ele>
        <time>2016-07-31T09:16:50Z</time>
      </trkpt>
      <trkpt lat="42.43917" lon="0.05887">
        <ele>763</ele>
        <time>2016-07-31T09:16:52Z</time>
      </trkpt>
      <trkpt lat="42.43918" lon="0.05882">
        <ele>764.1</ele>
        <time>2016-07-31T09:16:54Z</time>
      </trkpt>
      <trkpt lat="42.4392" lon="0.05878">
        <ele>764.9</ele>
        <time>2016-07-31T09:16:56Z</time>
      </trkpt>
      <trkpt lat="42.43924" lon="0.05875">
        <ele>765.5</ele>
        <time>2016-07-31T09:16:58Z</time>
      </trkpt>
      <trkpt lat="42.43928" lon="0.05874">
        <ele>765.9</ele>
        <time>2016-07-31T09:17:00Z</time>
      </trkpt>
      <trkpt lat="42.43932" lon="0.05873">
        <ele>766.1</ele>
        <time>2016-07-31T09:17:02Z</time>
      </trkpt>
      <trkpt lat="42.43936" lon="0.05872">
        <ele>766.4</ele>
        <time>2016-07-31T09:17:04Z</time>
      </trkpt>
      <trkpt lat="42.4394" lon="0.05871">
        <ele>766.6</ele>
        <time>2016-07-31T09:17:06Z</time>
      </trkpt>
      <trkpt lat="42.43944" lon="0.0587">
        <ele>766.9</ele>
        <time>2016-07-31T09:17:08Z</time>
      </trkpt>
      <trkpt lat="42.43948" lon="0.05868">
        <ele>767.3</ele>
        <time>2016-07-31T09:17:10Z</time>
      </trkpt>
      <trkpt lat="42.43951" lon="0.05866">
        <ele>767.7</ele>
        <time>2016-07-31T09:17:12Z</time>
      </trkpt>
      <trkpt lat="42.43955" lon="0.05865">
        <ele>768.1</ele>
        <time>2016-07-31T09:17:14Z</time>
      </trkpt>
      <trkpt lat="42.43958" lon="0.05863">
        <ele>768.5</ele>
        <time>2016-07-31T09:17:16Z</time>
      </trkpt>
      <trkpt lat="42.43962" lon="0.05861">
        <ele>768.9</ele>
        <time>2016-07-31T09:17:18Z</time>
      </trkpt>
      <trkpt lat="42.43965" lon="0.05859">
        <ele>769.3</ele>
        <time>2016-07-31T09:17:20Z</time>
      </trkpt>
      <trkpt lat="42.43968" lon="0.05858">
        <ele>769.7</ele>
        <time>2016-07-31T09:17:22Z</time>
      </trkpt>
      <trkpt lat="42.43972" lon="0.05856">
        <ele>770.2</ele>
        <time>2016-07-31T09:17:24Z</time>
      </trkpt>
      <trkpt lat="42.43975" lon="0.05854">
        <ele>770.6</ele>
        <time>2016-07-31T09:17:26Z</time>
      </trkpt>
      <trkpt lat="42.43978" lon="0.05853">
        <ele>770.9</ele>
        <time>2016-07-31T09:17:28Z</time>
      </trkpt>
      <trkpt lat="42.43981" lon="0.05851">
        <ele>771.2</ele>
        <time>2016-07-31T09:17:30Z</time>
      </trkpt>
      <trkpt lat="42.43985" lon="0.0585">
        <ele>771.6</ele>
        <time>2016-07-31T09:17:32Z</time>
      </trkpt>
      <trkpt lat="42.43989" lon="0.05848">
        <ele>772.1</ele>
        <time>2016-07-31T09:17:34Z</time>
      </trkpt>
      <trkpt lat="42.43993" lon="0.05846">
        <ele>772.5</ele>
        <time>2016-07-31T09:17:36Z</time>
      </trkpt>
      <trkpt lat="42.43996" lon="0.05844">
        <ele>772.8</ele>
        <time>2016-07-31T09:17:38Z</time>
      </trkpt>
      <trkpt lat="42.44" lon="0.05843">
        <ele>773.2</ele>
        <time>2016-07-31T09:17:40Z</time>
      </trkpt>
      <trkpt lat="42.44005" lon="0.05841">
        <ele>773.6</ele>
        <time>2016-07-31T09:17:42Z</time>
      </trkpt>
      <trkpt lat="42.44009" lon="0.05839">
        <ele>774</ele>
        <time>2016-07-31T09:17:44Z</time>
      </trkpt>
      <trkpt lat="42.44013" lon="0.05838">
        <ele>774.2</ele>
        <time>2016-07-31T09:17:46Z</time>
      </trkpt>
      <trkpt lat="42.44016" lon="0.05838">
        <ele>774.4</ele>
        <time>2016-07-31T09:17:48Z</time>
      </trkpt>
      <trkpt lat="42.4402" lon="0.05837">
        <ele>774.5</ele>
        <time>2016-07-31T09:17:50Z</time>
      </trkpt>
      <trkpt lat="42.44024" lon="0.05836">
        <ele>774.8</ele>
        <time>2016-07-31T09:17:52Z</time>
      </trkpt>
      <trkpt lat="42.44027" lon="0.05835">
        <ele>775.1</ele>
        <time>2016-07-31T09:17:54Z</time>
      </trkpt>
      <trkpt lat="42.4403" lon="0.05833">
        <ele>775.4</ele>
        <time>2016-07-31T09:17:56Z</time>
      </trkpt>
      <trkpt lat="42.44034" lon="0.05834">
        <ele>775.4</ele>
        <time>2016-07-31T09:17:58Z</time>
      </trkpt>
      <trkpt lat="42.44038" lon="0.05834">
        <ele>775.4</ele>
        <time>2016-07-31T09:18:00Z</time>
      </trkpt>
      <trkpt lat="42.44041" lon="0.05834">
        <ele>775.4</ele>
        <time>2016-07-31T09:18:02Z</time>
      </trkpt>
      <trkpt lat="42.44045" lon="0.05835">
        <ele>775.5</ele>
        <time>2016-07-31T09:18:04Z</time>
      </trkpt>
      <trkpt lat="42.44049" lon="0.05836">
        <ele>775.6</ele>
        <time>2016-07-31T09:18:06Z</time>
      </trkpt>
      <trkpt lat="42.44052" lon="0.05837">
        <ele>775.7</ele>
        <time>2016-07-31T09:18:08Z</time>
      </trkpt>
      <trkpt lat="42.44056" lon="0.05838">
        <ele>775.8</ele>
        <time>2016-07-31T09:18:10Z</time>
      </trkpt>
      <trkpt lat="42.4406" lon="0.05839">
        <ele>775.9</ele>
        <time>2016-07-31T09:18:12Z</time>
      </trkpt>
      <trkpt lat="42.44063" lon="0.05838">
        <ele>776.5</ele>
        <time>2016-07-31T09:18:14Z</time>
      </trkpt>
      <trkpt lat="42.44065" lon="0.05832">
        <ele>777.7</ele>
        <time>2016-07-31T09:18:16Z</time>
      </trkpt>
      <trkpt lat="42.44065" lon="0.05826">
        <ele>778.8</ele>
        <time>2016-07-31T09:18:18Z</time>
      </trkpt>
      <trkpt lat="42.44061" lon="0.05821">
        <ele>779.4</ele>
        <time>2016-07-31T09:18:20Z</time>
      </trkpt>
      <trkpt lat="42.44058" lon="0.05818">
        <ele>779.7</ele>
        <time>2016-07-31T09:18:22Z</time>
      </trkpt>
      <trkpt lat="42.44054" lon="0.05816">
        <ele>779.8</ele>
        <time>2016-07-31T09:18:24Z</time>
      </trkpt>
      <trkpt lat="42.44051" lon="0.05815">
        <ele>779.7</ele>
        <time>2016-07-31T09:18:26Z</time>
      </trkpt>
      <trkpt lat="42.44047" lon="0.05814">
        <ele>779.5</ele>
        <time>2016-07-31T09:18:28Z</time>
      </trkpt>
      <trkpt lat="42.44044" lon="0.05813">
        <ele>779.4</ele>
        <time>2016-07-31T09:18:30Z</time>
      </trkpt>
      <trkpt lat="42.4404" lon="0.05811">
        <ele>779.5</ele>
        <time>2016-07-31T09:18:32Z</time>
      </trkpt>
      <trkpt lat="42.44037" lon="0.05809">
        <ele>779.9</ele>
        <time>2016-07-31T09:18:34Z</time>
      </trkpt>
      <trkpt lat="42.44034" lon="0.05807">
        <ele>780.2</ele>
        <time>2016-07-31T09:18:36Z</time>
      </trkpt>
      <trkpt lat="42.44031" lon="0.05805">
        <ele>780.5</ele>
        <time>2016-07-31T09:18:38Z</time>
      </trkpt>
      <trkpt lat="42.44028" lon="0.05804">
        <ele>780.8</ele>
        <time>2016-07-31T09:18:40Z</time>
      </trkpt>
      <trkpt lat="42.44025" lon="0.05802">
        <ele>781.1</ele>
        <time>2016-07-31T09:18:42Z</time>
      </trkpt>
      <trkpt lat="42.44022" lon="0.058">
        <ele>781.4</ele>
        <time>2016-07-31T09:18:44Z</time>
      </trkpt>
      <trkpt lat="42.44019" lon="0.05799">
        <ele>781.7</ele>
        <time>2016-07-31T09:18:46Z</time>
      </trkpt>
      <trkpt lat="42.44016" lon="0.05796">
        <ele>782.1</ele>
        <time>2016-07-31T09:18:48Z</time>
      </trkpt>
      <trkpt lat="42.44013" lon="0.05794">
        <ele>782.6</ele>
        <time>2016-07-31T09:18:50Z</time>
      </trkpt>
      <trkpt lat="42.4401" lon="0.05791">
        <ele>783.3</ele>
        <time>2016-07-31T09:18:52Z</time>
      </trkpt>
      <trkpt lat="42.44008" lon="0.05787">
        <ele>784.2</ele>
        <time>2016-07-31T09:18:54Z</time>
      </trkpt>
      <trkpt lat="42.44005" lon="0.05784">
        <ele>785</ele>
        <time>2016-07-31T09:18:56Z</time>
      </trkpt>
      <trkpt lat="42.44002" lon="0.05782">
        <ele>785.6</ele>
        <time>2016-07-31T09:18:58Z</time>
      </trkpt>
      <trkpt lat="42.43998" lon="0.05779">
        <ele>786.1</ele>
        <time>2016-07-31T09:19:00Z</time>
      </trkpt>
      <trkpt lat="42.43995" lon="0.05776">
        <ele>787</ele>
        <time>2016-07-31T09:19:02Z</time>
      </trkpt>
      <trkpt lat="42.43992" lon="0.05772">
        <ele>788</ele>
        <time>2016-07-31T09:19:04Z</time>
      </trkpt>
      <trkpt lat="42.43989" lon="0.05768">
        <ele>788.9</ele>
        <time>2016-07-31T09:19:06Z</time>
      </trkpt>
      <trkpt lat="42.43986" lon="0.05764">
        <ele>789.8</ele>
        <time>2016-07-31T09:19:08Z</time>
      </trkpt>
      <trkpt lat="42.43984" lon="0.0576">
        <ele>790.7</ele>
        <time>2016-07-31T09:19:10Z</time>
      </trkpt>
      <trkpt lat="42.43981" lon="0.05757">
        <ele>791.6</ele>
        <time>2016-07-31T09:19:12Z</time>
      </trkpt>
      <trkpt lat="42.43978" lon="0.05753">
        <ele>792.3</ele>
        <time>2016-07-31T09:19:14Z</time>
      </trkpt>
      <trkpt lat="42.43975" lon="0.0575">
        <ele>793</ele>
        <time>2016-07-31T09:19:16Z</time>
      </trkpt>
      <trkpt lat="42.43971" lon="0.05748">
        <ele>793.4</ele>
        <time>2016-07-31T09:19:18Z</time>
      </trkpt>
      <trkpt lat="42.43968" lon="0.05746">
        <ele>793.7</ele>
        <time>2016-07-31T09:19:20Z</time>
      </trkpt>
      <trkpt lat="42.43964" lon="0.05745">
        <ele>793.9</ele>
        <time>2016-07-31T09:19:22Z</time>
      </trkpt>
      <trkpt lat="42.4396" lon="0.05744">
        <ele>793.9</ele>
        <time>2016-07-31T09:19:24Z</time>
      </trkpt>
      <trkpt lat="42.43957" lon="0.05744">
        <ele>793.9</ele>
        <time>2016-07-31T09:19:26Z</time>
      </trkpt>
      <trkpt lat="42.43954" lon="0.05744">
        <ele>793.7</ele>
        <time>2016-07-31T09:19:28Z</time>
      </trkpt>
      <trkpt lat="42.4395" lon="0.05744">
        <ele>793.5</ele>
        <time>2016-07-31T09:19:30Z</time>
      </trkpt>
      <trkpt lat="42.43946" lon="0.05744">
        <ele>793.4</ele>
        <time>2016-07-31T09:19:32Z</time>
      </trkpt>
      <trkpt lat="42.43942" lon="0.05743">
        <ele>793.3</ele>
        <time>2016-07-31T09:19:34Z</time>
      </trkpt>
      <trkpt lat="42.43939" lon="0.05742">
        <ele>793.4</ele>
        <time>2016-07-31T09:19:36Z</time>
      </trkpt>
      <trkpt lat="42.43935" lon="0.05741">
        <ele>793.4</ele>
        <time>2016-07-31T09:19:38Z</time>
      </trkpt>
      <trkpt lat="42.43931" lon="0.0574">
        <ele>793.4</ele>
        <time>2016-07-31T09:19:40Z</time>
      </trkpt>
      <trkpt lat="42.43926" lon="0.05739">
        <ele>793.3</ele>
        <time>2016-07-31T09:19:42Z</time>
      </trkpt>
      <trkpt lat="42.43922" lon="0.05739">
        <ele>793.2</ele>
        <time>2016-07-31T09:19:44Z</time>
      </trkpt>
      <trkpt lat="42.43918" lon="0.05738">
        <ele>793</ele>
        <time>2016-07-31T09:19:46Z</time>
      </trkpt>
      <trkpt lat="42.43914" lon="0.05738">
        <ele>792.8</ele>
        <time>2016-07-31T09:19:48Z</time>
      </trkpt>
      <trkpt lat="42.43909" lon="0.05738">
        <ele>792.6</ele>
        <time>2016-07-31T09:19:50Z</time>
      </trkpt>
      <trkpt lat="42.43905" lon="0.05738">
        <ele>792.4</ele>
        <time>2016-07-31T09:19:52Z</time>
      </trkpt>
      <trkpt lat="42.43901" lon="0.05737">
        <ele>792.2</ele>
        <time>2016-07-31T09:19:54Z</time>
      </trkpt>
      <trkpt lat="42.43897" lon="0.05736">
        <ele>792.2</ele>
        <time>2016-07-31T09:19:56Z</time>
      </trkpt>
      <trkpt lat="42.43893" lon="0.05735">
        <ele>792.1</ele>
        <time>2016-07-31T09:19:58Z</time>
      </trkpt>
      <trkpt lat="42.43889" lon="0.05734">
        <ele>792.1</ele>
        <time>2016-07-31T09:20:00Z</time>
      </trkpt>
      <trkpt lat="42.43886" lon="0.05733">
        <ele>792.1</ele>
        <time>2016-07-31T09:20:02Z</time>
      </trkpt>
      <trkpt lat="42.43882" lon="0.05731">
        <ele>792.1</ele>
        <time>2016-07-31T09:20:04Z</time>
      </trkpt>
      <trkpt lat="42.43879" lon="0.0573">
        <ele>792.2</ele>
        <time>2016-07-31T09:20:06Z</time>
      </trkpt>
      <trkpt lat="42.43875" lon="0.05728">
        <ele>792.3</ele>
        <time>2016-07-31T09:20:08Z</time>
      </trkpt>
      <trkpt lat="42.43872" lon="0.05726">
        <ele>792.4</ele>
        <time>2016-07-31T09:20:10Z</time>
      </trkpt>
      <trkpt lat="42.43869" lon="0.05724">
        <ele>792.5</ele>
        <time>2016-07-31T09:20:12Z</time>
      </trkpt>
      <trkpt lat="42.43865" lon="0.05722">
        <ele>792.6</ele>
        <time>2016-07-31T09:20:14Z</time>
      </trkpt>
      <trkpt lat="42.43862" lon="0.0572">
        <ele>792.6</ele>
        <time>2016-07-31T09:20:16Z</time>
      </trkpt>
      <trkpt lat="42.43858" lon="0.05719">
        <ele>792.6</ele>
        <time>2016-07-31T09:20:18Z</time>
      </trkpt>
      <trkpt lat="42.43855" lon="0.05719">
        <ele>792.5</ele>
        <time>2016-07-31T09:20:20Z</time>
      </trkpt>
      <trkpt lat="42.43851" lon="0.05718">
        <ele>792.5</ele>
        <time>2016-07-31T09:20:22Z</time>
      </trkpt>
      <trkpt lat="42.43848" lon="0.05716">
        <ele>792.7</ele>
        <time>2016-07-31T09:20:24Z</time>
      </trkpt>
      <trkpt lat="42.43845" lon="0.05713">
        <ele>792.8</ele>
        <time>2016-07-31T09:20:26Z</time>
      </trkpt>
      <trkpt lat="42.43841" lon="0.05712">
        <ele>792.9</ele>
        <time>2016-07-31T09:20:28Z</time>
      </trkpt>
      <trkpt lat="42.43838" lon="0.0571">
        <ele>793</ele>
        <time>2016-07-31T09:20:30Z</time>
      </trkpt>
      <trkpt lat="42.43835" lon="0.05708">
        <ele>793.1</ele>
        <time>2016-07-31T09:20:32Z</time>
      </trkpt>
      <trkpt lat="42.43832" lon="0.05707">
        <ele>793.3</ele>
        <time>2016-07-31T09:20:34Z</time>
      </trkpt>
      <trkpt lat="42.43829" lon="0.05705">
        <ele>793.5</ele>
        <time>2016-07-31T09:20:36Z</time>
      </trkpt>
      <trkpt lat="42.43826" lon="0.05704">
        <ele>793.6</ele>
        <time>2016-07-31T09:20:38Z</time>
      </trkpt>
      <trkpt lat="42.43823" lon="0.05703">
        <ele>793.7</ele>
        <time>2016-07-31T09:20:40Z</time>
      </trkpt>
      <trkpt lat="42.4382" lon="0.05701">
        <ele>794.1</ele>
        <time>2016-07-31T09:20:42Z</time>
      </trkpt>
      <trkpt lat="42.43818" lon="0.05697">
        <ele>794.8</ele>
        <time>2016-07-31T09:20:44Z</time>
      </trkpt>
      <trkpt lat="42.43817" lon="0.05694">
        <ele>795.5</ele>
        <time>2016-07-31T09:20:46Z</time>
      </trkpt>
      <trkpt lat="42.43815" lon="0.0569">
        <ele>796.2</ele>
        <time>2016-07-31T09:20:48Z</time>
      </trkpt>
      <trkpt lat="42.43814" lon="0.05686">
        <ele>797</ele>
        <time>2016-07-31T09:20:50Z</time>
      </trkpt>
      <trkpt lat="42.43814" lon="0.05682">
        <ele>797.8</ele>
        <time>2016-07-31T09:20:52Z</time>
      </trkpt>
      <trkpt lat="42.43814" lon="0.05679">
        <ele>798.7</ele>
        <time>2016-07-31T09:20:54Z</time>
      </trkpt>
      <trkpt lat="42.43815" lon="0.05675">
        <ele>799.7</ele>
        <time>2016-07-31T09:20:56Z</time>
      </trkpt>
      <trkpt lat="42.43817" lon="0.05671">
        <ele>800.6</ele>
        <time>2016-07-31T09:20:58Z</time>
      </trkpt>
      <trkpt lat="42.43818" lon="0.05667">
        <ele>801.6</ele>
        <time>2016-07-31T09:21:00Z</time>
      </trkpt>
      <trkpt lat="42.43818" lon="0.05663">
        <ele>802.4</ele>
        <time>2016-07-31T09:21:02Z</time>
      </trkpt>
      <trkpt lat="42.43818" lon="0.05659">
        <ele>803.4</ele>
        <time>2016-07-31T09:21:04Z</time>
      </trkpt>
      <trkpt lat="42.43818" lon="0.05654">
        <ele>804.4</ele>
        <time>2016-07-31T09:21:06Z</time>
      </trkpt>
      <trkpt lat="42.43817" lon="0.0565">
        <ele>805.1</ele>
        <time>2016-07-31T09:21:08Z</time>
      </trkpt>
      <trkpt lat="42.43815" lon="0.05647">
        <ele>805.7</ele>
        <time>2016-07-31T09:21:10Z</time>
      </trkpt>
      <trkpt lat="42.43812" lon="0.05644">
        <ele>806.2</ele>
        <time>2016-07-31T09:21:13Z</time>
      </trkpt>
      <trkpt lat="42.43809" lon="0.05643">
        <ele>806.3</ele>
        <time>2016-07-31T09:21:15Z</time>
      </trkpt>
      <trkpt lat="42.43806" lon="0.05642">
        <ele>806.3</ele>
        <time>2016-07-31T09:21:17Z</time>
      </trkpt>
      <trkpt lat="42.43803" lon="0.0564">
        <ele>806.5</ele>
        <time>2016-07-31T09:21:19Z</time>
      </trkpt>
      <trkpt lat="42.438" lon="0.05638">
        <ele>806.7</ele>
        <time>2016-07-31T09:21:21Z</time>
      </trkpt>
      <trkpt lat="42.43796" lon="0.05637">
        <ele>806.8</ele>
        <time>2016-07-31T09:21:23Z</time>
      </trkpt>
      <trkpt lat="42.43793" lon="0.05635">
        <ele>807</ele>
        <time>2016-07-31T09:21:25Z</time>
      </trkpt>
      <trkpt lat="42.43789" lon="0.05633">
        <ele>807.4</ele>
        <time>2016-07-31T09:21:27Z</time>
      </trkpt>
      <trkpt lat="42.43786" lon="0.05631">
        <ele>807.7</ele>
        <time>2016-07-31T09:21:29Z</time>
      </trkpt>
      <trkpt lat="42.43782" lon="0.05629">
        <ele>808</ele>
        <time>2016-07-31T09:21:31Z</time>
      </trkpt>
      <trkpt lat="42.43778" lon="0.05627">
        <ele>808.4</ele>
        <time>2016-07-31T09:21:33Z</time>
      </trkpt>
      <trkpt lat="42.43775" lon="0.05625">
        <ele>808.8</ele>
        <time>2016-07-31T09:21:35Z</time>
      </trkpt>
      <trkpt lat="42.43771" lon="0.05624">
        <ele>808.9</ele>
        <time>2016-07-31T09:21:37Z</time>
      </trkpt>
      <trkpt lat="42.43767" lon="0.05623">
        <ele>809.1</ele>
        <time>2016-07-31T09:21:39Z</time>
      </trkpt>
      <trkpt lat="42.43763" lon="0.05623">
        <ele>809.2</ele>
        <time>2016-07-31T09:21:41Z</time>
      </trkpt>
      <trkpt lat="42.43759" lon="0.05621">
        <ele>809.6</ele>
        <time>2016-07-31T09:21:43Z</time>
      </trkpt>
      <trkpt lat="42.43756" lon="0.05618">
        <ele>810</ele>
        <time>2016-07-31T09:21:45Z</time>
      </trkpt>
      <trkpt lat="42.43752" lon="0.05617">
        <ele>810.3</ele>
        <time>2016-07-31T09:21:47Z</time>
      </trkpt>
      <trkpt lat="42.43748" lon="0.05615">
        <ele>810.6</ele>
        <time>2016-07-31T09:21:49Z</time>
      </trkpt>
      <trkpt lat="42.43745" lon="0.05614">
        <ele>810.9</ele>
        <time>2016-07-31T09:21:51Z</time>
      </trkpt>
      <trkpt lat="42.43741" lon="0.05613">
        <ele>811.1</ele>
        <time>2016-07-31T09:21:53Z</time>
      </trkpt>
      <trkpt lat="42.43738" lon="0.05611">
        <ele>811.4</ele>
        <time>2016-07-31T09:21:55Z</time>
      </trkpt>
      <trkpt lat="42.43734" lon="0.05609">
        <ele>811.8</ele>
        <time>2016-07-31T09:21:57Z</time>
      </trkpt>
      <trkpt lat="42.43731" lon="0.05608">
        <ele>812</ele>
        <time>2016-07-31T09:21:59Z</time>
      </trkpt>
      <trkpt lat="42.43728" lon="0.05606">
        <ele>812.4</ele>
        <time>2016-07-31T09:22:01Z</time>
      </trkpt>
      <trkpt lat="42.43726" lon="0.05604">
        <ele>812.9</ele>
        <time>2016-07-31T09:22:03Z</time>
      </trkpt>
      <trkpt lat="42.43724" lon="0.056">
        <ele>813.7</ele>
        <time>2016-07-31T09:22:05Z</time>
      </trkpt>
      <trkpt lat="42.43723" lon="0.05596">
        <ele>814.5</ele>
        <time>2016-07-31T09:22:07Z</time>
      </trkpt>
      <trkpt lat="42.43725" lon="0.05592">
        <ele>815.5</ele>
        <time>2016-07-31T09:22:09Z</time>
      </trkpt>
      <trkpt lat="42.43729" lon="0.0559">
        <ele>815.8</ele>
        <time>2016-07-31T09:22:11Z</time>
      </trkpt>
      <trkpt lat="42.43734" lon="0.05591">
        <ele>815.7</ele>
        <time>2016-07-31T09:22:13Z</time>
      </trkpt>
      <trkpt lat="42.43739" lon="0.05592">
        <ele>815.6</ele>
        <time>2016-07-31T09:22:15Z</time>
      </trkpt>
      <trkpt lat="42.43742" lon="0.05593">
        <ele>815.6</ele>
        <time>2016-07-31T09:22:16Z</time>
      </trkpt>
      <trkpt lat="42.43745" lon="0.05593">
        <ele>815.6</ele>
        <time>2016-07-31T09:22:17Z</time>
      </trkpt>
      <trkpt lat="42.4375" lon="0.05592">
        <ele>815.8</ele>
        <time>2016-07-31T09:22:19Z</time>
      </trkpt>
      <trkpt lat="42.43754" lon="0.05592">
        <ele>815.9</ele>
        <time>2016-07-31T09:22:21Z</time>
      </trkpt>
      <trkpt lat="42.43758" lon="0.05593">
        <ele>815.8</ele>
        <time>2016-07-31T09:22:23Z</time>
      </trkpt>
      <trkpt lat="42.43762" lon="0.05593">
        <ele>815.9</ele>
        <time>2016-07-31T09:22:25Z</time>
      </trkpt>
      <trkpt lat="42.43766" lon="0.05592">
        <ele>816.1</ele>
        <time>2016-07-31T09:22:27Z</time>
      </trkpt>
      <trkpt lat="42.4377" lon="0.05593">
        <ele>816.1</ele>
        <time>2016-07-31T09:22:29Z</time>
      </trkpt>
      <trkpt lat="42.43774" lon="0.05594">
        <ele>815.8</ele>
        <time>2016-07-31T09:22:31Z</time>
      </trkpt>
      <trkpt lat="42.43778" lon="0.05595">
        <ele>815.7</ele>
        <time>2016-07-31T09:22:33Z</time>
      </trkpt>
      <trkpt lat="42.43782" lon="0.05596">
        <ele>815.6</ele>
        <time>2016-07-31T09:22:35Z</time>
      </trkpt>
      <trkpt lat="42.43787" lon="0.05597">
        <ele>815.4</ele>
        <time>2016-07-31T09:22:37Z</time>
      </trkpt>
      <trkpt lat="42.43792" lon="0.05598">
        <ele>815.3</ele>
        <time>2016-07-31T09:22:39Z</time>
      </trkpt>
      <trkpt lat="42.43798" lon="0.05598">
        <ele>815.6</ele>
        <time>2016-07-31T09:22:41Z</time>
      </trkpt>
      <trkpt lat="42.43803" lon="0.05599">
        <ele>815.9</ele>
        <time>2016-07-31T09:22:43Z</time>
      </trkpt>
      <trkpt lat="42.43808" lon="0.05599">
        <ele>816.3</ele>
        <time>2016-07-31T09:22:45Z</time>
      </trkpt>
      <trkpt lat="42.43813" lon="0.056">
        <ele>816.6</ele>
        <time>2016-07-31T09:22:47Z</time>
      </trkpt>
      <trkpt lat="42.43818" lon="0.05601">
        <ele>816.8</ele>
        <time>2016-07-31T09:22:49Z</time>
      </trkpt>
      <trkpt lat="42.43823" lon="0.05602">
        <ele>817</ele>
        <time>2016-07-31T09:22:51Z</time>
      </trkpt>
      <trkpt lat="42.43827" lon="0.05602">
        <ele>817.3</ele>
        <time>2016-07-31T09:22:53Z</time>
      </trkpt>
      <trkpt lat="42.43832" lon="0.05603">
        <ele>817.6</ele>
        <time>2016-07-31T09:22:55Z</time>
      </trkpt>
      <trkpt lat="42.43837" lon="0.05603">
        <ele>817.9</ele>
        <time>2016-07-31T09:22:57Z</time>
      </trkpt>
      <trkpt lat="42.43841" lon="0.05603">
        <ele>818.2</ele>
        <time>2016-07-31T09:22:59Z</time>
      </trkpt>
      <trkpt lat="42.43846" lon="0.05603">
        <ele>818.6</ele>
        <time>2016-07-31T09:23:01Z</time>
      </trkpt>
      <trkpt lat="42.43851" lon="0.05603">
        <ele>818.9</ele>
        <time>2016-07-31T09:23:03Z</time>
      </trkpt>
      <trkpt lat="42.43855" lon="0.05603">
        <ele>819.3</ele>
        <time>2016-07-31T09:23:05Z</time>
      </trkpt>
      <trkpt lat="42.4386" lon="0.05603">
        <ele>819.7</ele>
        <time>2016-07-31T09:23:07Z</time>
      </trkpt>
      <trkpt lat="42.43864" lon="0.05603">
        <ele>820.1</ele>
        <time>2016-07-31T09:23:09Z</time>
      </trkpt>
      <trkpt lat="42.43869" lon="0.05603">
        <ele>820.5</ele>
        <time>2016-07-31T09:23:11Z</time>
      </trkpt>
      <trkpt lat="42.43873" lon="0.05603">
        <ele>820.9</ele>
        <time>2016-07-31T09:23:13Z</time>
      </trkpt>
      <trkpt lat="42.43877" lon="0.05602">
        <ele>821.4</ele>
        <time>2016-07-31T09:23:15Z</time>
      </trkpt>
      <trkpt lat="42.4388" lon="0.05601">
        <ele>822.2</ele>
        <time>2016-07-31T09:23:17Z</time>
      </trkpt>
      <trkpt lat="42.43882" lon="0.05598">
        <ele>823.2</ele>
        <time>2016-07-31T09:23:19Z</time>
      </trkpt>
      <trkpt lat="42.43882" lon="0.05595">
        <ele>824.3</ele>
        <time>2016-07-31T09:23:21Z</time>
      </trkpt>
      <trkpt lat="42.43881" lon="0.05591">
        <ele>825.1</ele>
        <time>2016-07-31T09:23:23Z</time>
      </trkpt>
      <trkpt lat="42.43878" lon="0.05588">
        <ele>825.6</ele>
        <time>2016-07-31T09:23:25Z</time>
      </trkpt>
      <trkpt lat="42.43875" lon="0.05587">
        <ele>825.6</ele>
        <time>2016-07-31T09:23:27Z</time>
      </trkpt>
      <trkpt lat="42.43871" lon="0.05586">
        <ele>825.4</ele>
        <time>2016-07-31T09:23:29Z</time>
      </trkpt>
      <trkpt lat="42.43867" lon="0.05585">
        <ele>825.4</ele>
        <time>2016-07-31T09:23:31Z</time>
      </trkpt>
      <trkpt lat="42.43864" lon="0.05583">
        <ele>825.4</ele>
        <time>2016-07-31T09:23:33Z</time>
      </trkpt>
      <trkpt lat="42.4386" lon="0.05582">
        <ele>825.5</ele>
        <time>2016-07-31T09:23:35Z</time>
      </trkpt>
      <trkpt lat="42.43856" lon="0.0558">
        <ele>825.7</ele>
        <time>2016-07-31T09:23:37Z</time>
      </trkpt>
      <trkpt lat="42.43853" lon="0.05578">
        <ele>825.9</ele>
        <time>2016-07-31T09:23:39Z</time>
      </trkpt>
      <trkpt lat="42.4385" lon="0.05576">
        <ele>826.1</ele>
        <time>2016-07-31T09:23:41Z</time>
      </trkpt>
      <trkpt lat="42.43847" lon="0.05574">
        <ele>826.3</ele>
        <time>2016-07-31T09:23:43Z</time>
      </trkpt>
      <trkpt lat="42.43844" lon="0.05572">
        <ele>826.5</ele>
        <time>2016-07-31T09:23:45Z</time>
      </trkpt>
      <trkpt lat="42.43841" lon="0.0557">
        <ele>826.7</ele>
        <time>2016-07-31T09:23:47Z</time>
      </trkpt>
      <trkpt lat="42.43838" lon="0.05568">
        <ele>827</ele>
        <time>2016-07-31T09:23:49Z</time>
      </trkpt>
      <trkpt lat="42.43835" lon="0.05565">
        <ele>827.2</ele>
        <time>2016-07-31T09:23:51Z</time>
      </trkpt>
      <trkpt lat="42.43832" lon="0.05563">
        <ele>827.4</ele>
        <time>2016-07-31T09:23:53Z</time>
      </trkpt>
      <trkpt lat="42.43829" lon="0.05561">
        <ele>827.6</ele>
        <time>2016-07-31T09:23:55Z</time>
      </trkpt>
      <trkpt lat="42.43826" lon="0.05559">
        <ele>827.8</ele>
        <time>2016-07-31T09:23:57Z</time>
      </trkpt>
      <trkpt lat="42.43823" lon="0.05557">
        <ele>828.1</ele>
        <time>2016-07-31T09:23:59Z</time>
      </trkpt>
      <trkpt lat="42.4382" lon="0.05554">
        <ele>828.4</ele>
        <time>2016-07-31T09:24:01Z</time>
      </trkpt>
      <trkpt lat="42.43817" lon="0.05552">
        <ele>828.6</ele>
        <time>2016-07-31T09:24:03Z</time>
      </trkpt>
      <trkpt lat="42.43815" lon="0.05549">
        <ele>829</ele>
        <time>2016-07-31T09:24:05Z</time>
      </trkpt>
      <trkpt lat="42.43813" lon="0.05546">
        <ele>829.5</ele>
        <time>2016-07-31T09:24:07Z</time>
      </trkpt>
      <trkpt lat="42.4381" lon="0.05543">
        <ele>829.9</ele>
        <time>2016-07-31T09:24:09Z</time>
      </trkpt>
      <trkpt lat="42.43808" lon="0.0554">
        <ele>830.4</ele>
        <time>2016-07-31T09:24:11Z</time>
      </trkpt>
      <trkpt lat="42.43805" lon="0.05536">
        <ele>831.3</ele>
        <time>2016-07-31T09:24:13Z</time>
      </trkpt>
      <trkpt lat="42.43803" lon="0.05533">
        <ele>831.9</ele>
        <time>2016-07-31T09:24:15Z</time>
      </trkpt>
      <trkpt lat="42.43801" lon="0.0553">
        <ele>832.7</ele>
        <time>2016-07-31T09:24:17Z</time>
      </trkpt>
      <trkpt lat="42.43799" lon="0.05526">
        <ele>833.5</ele>
        <time>2016-07-31T09:24:19Z</time>
      </trkpt>
      <trkpt lat="42.43797" lon="0.05523">
        <ele>834.3</ele>
        <time>2016-07-31T09:24:21Z</time>
      </trkpt>
      <trkpt lat="42.43794" lon="0.0552">
        <ele>834.8</ele>
        <time>2016-07-31T09:24:23Z</time>
      </trkpt>
      <trkpt lat="42.43791" lon="0.05517">
        <ele>835.3</ele>
        <time>2016-07-31T09:24:25Z</time>
      </trkpt>
      <trkpt lat="42.43789" lon="0.05515">
        <ele>836.1</ele>
        <time>2016-07-31T09:24:27Z</time>
      </trkpt>
      <trkpt lat="42.43786" lon="0.05512">
        <ele>836.9</ele>
        <time>2016-07-31T09:24:29Z</time>
      </trkpt>
      <trkpt lat="42.43783" lon="0.05509">
        <ele>837.7</ele>
        <time>2016-07-31T09:24:31Z</time>
      </trkpt>
      <trkpt lat="42.43779" lon="0.05506">
        <ele>838.5</ele>
        <time>2016-07-31T09:24:33Z</time>
      </trkpt>
      <trkpt lat="42.43775" lon="0.05504">
        <ele>839</ele>
        <time>2016-07-31T09:24:35Z</time>
      </trkpt>
      <trkpt lat="42.43772" lon="0.05502">
        <ele>839.5</ele>
        <time>2016-07-31T09:24:37Z</time>
      </trkpt>
      <trkpt lat="42.43769" lon="0.05499">
        <ele>840.1</ele>
        <time>2016-07-31T09:24:39Z</time>
      </trkpt>
      <trkpt lat="42.43766" lon="0.05497">
        <ele>840.7</ele>
        <time>2016-07-31T09:24:41Z</time>
      </trkpt>
      <trkpt lat="42.43763" lon="0.05495">
        <ele>841.5</ele>
        <time>2016-07-31T09:24:43Z</time>
      </trkpt>
      <trkpt lat="42.4376" lon="0.05492">
        <ele>842.1</ele>
        <time>2016-07-31T09:24:45Z</time>
      </trkpt>
      <trkpt lat="42.43756" lon="0.0549">
        <ele>842.6</ele>
        <time>2016-07-31T09:24:47Z</time>
      </trkpt>
      <trkpt lat="42.43753" lon="0.05489">
        <ele>843</ele>
        <time>2016-07-31T09:24:49Z</time>
      </trkpt>
      <trkpt lat="42.4375" lon="0.05486">
        <ele>843.7</ele>
        <time>2016-07-31T09:24:51Z</time>
      </trkpt>
      <trkpt lat="42.43747" lon="0.05484">
        <ele>844.3</ele>
        <time>2016-07-31T09:24:53Z</time>
      </trkpt>
      <trkpt lat="42.43744" lon="0.05481">
        <ele>845</ele>
        <time>2016-07-31T09:24:55Z</time>
      </trkpt>
      <trkpt lat="42.43741" lon="0.05479">
        <ele>845.6</ele>
        <time>2016-07-31T09:24:57Z</time>
      </trkpt>
      <trkpt lat="42.43739" lon="0.05476">
        <ele>846.3</ele>
        <time>2016-07-31T09:24:59Z</time>
      </trkpt>
      <trkpt lat="42.43735" lon="0.05474">
        <ele>846.9</ele>
        <time>2016-07-31T09:25:01Z</time>
      </trkpt>
      <trkpt lat="42.43732" lon="0.05472">
        <ele>847.4</ele>
        <time>2016-07-31T09:25:03Z</time>
      </trkpt>
      <trkpt lat="42.43729" lon="0.05471">
        <ele>847.8</ele>
        <time>2016-07-31T09:25:05Z</time>
      </trkpt>
      <trkpt lat="42.43726" lon="0.05469">
        <ele>848.3</ele>
        <time>2016-07-31T09:25:07Z</time>
      </trkpt>
      <trkpt lat="42.43723" lon="0.05467">
        <ele>848.7</ele>
        <time>2016-07-31T09:25:09Z</time>
      </trkpt>
      <trkpt lat="42.4372" lon="0.05466">
        <ele>849</ele>
        <time>2016-07-31T09:25:11Z</time>
      </trkpt>
      <trkpt lat="42.43717" lon="0.05465">
        <ele>849.3</ele>
        <time>2016-07-31T09:25:13Z</time>
      </trkpt>
      <trkpt lat="42.43714" lon="0.05463">
        <ele>849.6</ele>
        <time>2016-07-31T09:25:15Z</time>
      </trkpt>
      <trkpt lat="42.4371" lon="0.05462">
        <ele>849.8</ele>
        <time>2016-07-31T09:25:17Z</time>
      </trkpt>
      <trkpt lat="42.43707" lon="0.05463">
        <ele>849.7</ele>
        <time>2016-07-31T09:25:19Z</time>
      </trkpt>
      <trkpt lat="42.43704" lon="0.05463">
        <ele>849.6</ele>
        <time>2016-07-31T09:25:21Z</time>
      </trkpt>
      <trkpt lat="42.43701" lon="0.05464">
        <ele>849.5</ele>
        <time>2016-07-31T09:25:23Z</time>
      </trkpt>
      <trkpt lat="42.43698" lon="0.05464">
        <ele>849.4</ele>
        <time>2016-07-31T09:25:25Z</time>
      </trkpt>
      <trkpt lat="42.43694" lon="0.05464">
        <ele>849.6</ele>
        <time>2016-07-31T09:25:27Z</time>
      </trkpt>
      <trkpt lat="42.43692" lon="0.05463">
        <ele>849.8</ele>
        <time>2016-07-31T09:25:29Z</time>
      </trkpt>
      <trkpt lat="42.43688" lon="0.05463">
        <ele>850</ele>
        <time>2016-07-31T09:25:31Z</time>
      </trkpt>
      <trkpt lat="42.43685" lon="0.05462">
        <ele>850.1</ele>
        <time>2016-07-31T09:25:33Z</time>
      </trkpt>
      <trkpt lat="42.43681" lon="0.05462">
        <ele>850.2</ele>
        <time>2016-07-31T09:25:35Z</time>
      </trkpt>
      <trkpt lat="42.43677" lon="0.05462">
        <ele>850.3</ele>
        <time>2016-07-31T09:25:37Z</time>
      </trkpt>
      <trkpt lat="42.43674" lon="0.05461">
        <ele>850.4</ele>
        <time>2016-07-31T09:25:39Z</time>
      </trkpt>
      <trkpt lat="42.4367" lon="0.05461">
        <ele>850.6</ele>
        <time>2016-07-31T09:25:41Z</time>
      </trkpt>
      <trkpt lat="42.43667" lon="0.0546">
        <ele>850.9</ele>
        <time>2016-07-31T09:25:43Z</time>
      </trkpt>
      <trkpt lat="42.43664" lon="0.05458">
        <ele>851.6</ele>
        <time>2016-07-31T09:25:45Z</time>
      </trkpt>
      <trkpt lat="42.43662" lon="0.05456">
        <ele>852.6</ele>
        <time>2016-07-31T09:25:47Z</time>
      </trkpt>
      <trkpt lat="42.43659" lon="0.05453">
        <ele>853.7</ele>
        <time>2016-07-31T09:25:49Z</time>
      </trkpt>
      <trkpt lat="42.43657" lon="0.0545">
        <ele>854.9</ele>
        <time>2016-07-31T09:25:51Z</time>
      </trkpt>
      <trkpt lat="42.43654" lon="0.05447">
        <ele>855.9</ele>
        <time>2016-07-31T09:25:53Z</time>
      </trkpt>
      <trkpt lat="42.43651" lon="0.05445">
        <ele>856.9</ele>
        <time>2016-07-31T09:25:55Z</time>
      </trkpt>
      <trkpt lat="42.43648" lon="0.05442">
        <ele>857.9</ele>
        <time>2016-07-31T09:25:57Z</time>
      </trkpt>
      <trkpt lat="42.43645" lon="0.0544">
        <ele>858.8</ele>
        <time>2016-07-31T09:25:59Z</time>
      </trkpt>
      <trkpt lat="42.43642" lon="0.05439">
        <ele>859.4</ele>
        <time>2016-07-31T09:26:01Z</time>
      </trkpt>
      <trkpt lat="42.43639" lon="0.05438">
        <ele>859.8</ele>
        <time>2016-07-31T09:26:03Z</time>
      </trkpt>
      <trkpt lat="42.43635" lon="0.05437">
        <ele>860.3</ele>
        <time>2016-07-31T09:26:05Z</time>
      </trkpt>
      <trkpt lat="42.43632" lon="0.05435">
        <ele>860.8</ele>
        <time>2016-07-31T09:26:07Z</time>
      </trkpt>
      <trkpt lat="42.43628" lon="0.05435">
        <ele>860.8</ele>
        <time>2016-07-31T09:26:09Z</time>
      </trkpt>
      <trkpt lat="42.43625" lon="0.05436">
        <ele>860.4</ele>
        <time>2016-07-31T09:26:11Z</time>
      </trkpt>
      <trkpt lat="42.43621" lon="0.05437">
        <ele>860</ele>
        <time>2016-07-31T09:26:13Z</time>
      </trkpt>
      <trkpt lat="42.43618" lon="0.05438">
        <ele>859.6</ele>
        <time>2016-07-31T09:26:15Z</time>
      </trkpt>
      <trkpt lat="42.43615" lon="0.05439">
        <ele>859.3</ele>
        <time>2016-07-31T09:26:17Z</time>
      </trkpt>
      <trkpt lat="42.43612" lon="0.05438">
        <ele>859.3</ele>
        <time>2016-07-31T09:26:19Z</time>
      </trkpt>
      <trkpt lat="42.43609" lon="0.05438">
        <ele>859.5</ele>
        <time>2016-07-31T09:26:21Z</time>
      </trkpt>
      <trkpt lat="42.43605" lon="0.05437">
        <ele>859.9</ele>
        <time>2016-07-31T09:26:23Z</time>
      </trkpt>
      <trkpt lat="42.43602" lon="0.05435">
        <ele>860.2</ele>
        <time>2016-07-31T09:26:25Z</time>
      </trkpt>
      <trkpt lat="42.43598" lon="0.05434">
        <ele>860.6</ele>
        <time>2016-07-31T09:26:27Z</time>
      </trkpt>
      <trkpt lat="42.43594" lon="0.05433">
        <ele>861</ele>
        <time>2016-07-31T09:26:29Z</time>
      </trkpt>
      <trkpt lat="42.43591" lon="0.05431">
        <ele>861.4</ele>
        <time>2016-07-31T09:26:31Z</time>
      </trkpt>
      <trkpt lat="42.43587" lon="0.0543">
        <ele>861.7</ele>
        <time>2016-07-31T09:26:33Z</time>
      </trkpt>
      <trkpt lat="42.43584" lon="0.0543">
        <ele>861.7</ele>
        <time>2016-07-31T09:26:35Z</time>
      </trkpt>
      <trkpt lat="42.4358" lon="0.05429">
        <ele>861.9</ele>
        <time>2016-07-31T09:26:37Z</time>
      </trkpt>
      <trkpt lat="42.43577" lon="0.05428">
        <ele>862.1</ele>
        <time>2016-07-31T09:26:39Z</time>
      </trkpt>
      <trkpt lat="42.43574" lon="0.05427">
        <ele>862.4</ele>
        <time>2016-07-31T09:26:41Z</time>
      </trkpt>
      <trkpt lat="42.4357" lon="0.05426">
        <ele>862.7</ele>
        <time>2016-07-31T09:26:43Z</time>
      </trkpt>
      <trkpt lat="42.43567" lon="0.05425">
        <ele>863.1</ele>
        <time>2016-07-31T09:26:45Z</time>
      </trkpt>
      <trkpt lat="42.43564" lon="0.05423">
        <ele>863.7</ele>
        <time>2016-07-31T09:26:47Z</time>
      </trkpt>
      <trkpt lat="42.43561" lon="0.05421">
        <ele>864.1</ele>
        <time>2016-07-31T09:26:49Z</time>
      </trkpt>
      <trkpt lat="42.43557" lon="0.0542">
        <ele>864.5</ele>
        <time>2016-07-31T09:26:51Z</time>
      </trkpt>
      <trkpt lat="42.43554" lon="0.05417">
        <ele>865.2</ele>
        <time>2016-07-31T09:26:53Z</time>
      </trkpt>
      <trkpt lat="42.43551" lon="0.05415">
        <ele>865.9</ele>
        <time>2016-07-31T09:26:55Z</time>
      </trkpt>
      <trkpt lat="42.43547" lon="0.05413">
        <ele>866.4</ele>
        <time>2016-07-31T09:26:57Z</time>
      </trkpt>
      <trkpt lat="42.43544" lon="0.05411">
        <ele>866.9</ele>
        <time>2016-07-31T09:26:59Z</time>
      </trkpt>
      <trkpt lat="42.43541" lon="0.0541">
        <ele>867</ele>
        <time>2016-07-31T09:27:01Z</time>
      </trkpt>
      <trkpt lat="42.43538" lon="0.0541">
        <ele>866.8</ele>
        <time>2016-07-31T09:27:03Z</time>
      </trkpt>
      <trkpt lat="42.43535" lon="0.0541">
        <ele>866.3</ele>
        <time>2016-07-31T09:27:05Z</time>
      </trkpt>
      <trkpt lat="42.43531" lon="0.0541">
        <ele>865.9</ele>
        <time>2016-07-31T09:27:07Z</time>
      </trkpt>
      <trkpt lat="42.43527" lon="0.05409">
        <ele>865.4</ele>
        <time>2016-07-31T09:27:09Z</time>
      </trkpt>
      <trkpt lat="42.43523" lon="0.05409">
        <ele>865</ele>
        <time>2016-07-31T09:27:11Z</time>
      </trkpt>
      <trkpt lat="42.4352" lon="0.05407">
        <ele>864.8</ele>
        <time>2016-07-31T09:27:13Z</time>
      </trkpt>
      <trkpt lat="42.43516" lon="0.05407">
        <ele>864.4</ele>
        <time>2016-07-31T09:27:15Z</time>
      </trkpt>
      <trkpt lat="42.43513" lon="0.05407">
        <ele>863.9</ele>
        <time>2016-07-31T09:27:17Z</time>
      </trkpt>
      <trkpt lat="42.43509" lon="0.05406">
        <ele>863.6</ele>
        <time>2016-07-31T09:27:19Z</time>
      </trkpt>
      <trkpt lat="42.43505" lon="0.05406">
        <ele>863.3</ele>
        <time>2016-07-31T09:27:21Z</time>
      </trkpt>
      <trkpt lat="42.43501" lon="0.05405">
        <ele>862.7</ele>
        <time>2016-07-31T09:27:23Z</time>
      </trkpt>
      <trkpt lat="42.43498" lon="0.05405">
        <ele>862.2</ele>
        <time>2016-07-31T09:27:25Z</time>
      </trkpt>
      <trkpt lat="42.43494" lon="0.05405">
        <ele>861.8</ele>
        <time>2016-07-31T09:27:27Z</time>
      </trkpt>
      <trkpt lat="42.43491" lon="0.05405">
        <ele>861.3</ele>
        <time>2016-07-31T09:27:29Z</time>
      </trkpt>
      <trkpt lat="42.43488" lon="0.05406">
        <ele>860.7</ele>
        <time>2016-07-31T09:27:31Z</time>
      </trkpt>
      <trkpt lat="42.43485" lon="0.05406">
        <ele>860.1</ele>
        <time>2016-07-31T09:27:33Z</time>
      </trkpt>
      <trkpt lat="42.43482" lon="0.05405">
        <ele>859.9</ele>
        <time>2016-07-31T09:27:35Z</time>
      </trkpt>
      <trkpt lat="42.43479" lon="0.05404">
        <ele>859.8</ele>
        <time>2016-07-31T09:27:37Z</time>
      </trkpt>
      <trkpt lat="42.43476" lon="0.05403">
        <ele>859.7</ele>
        <time>2016-07-31T09:27:39Z</time>
      </trkpt>
      <trkpt lat="42.43473" lon="0.05402">
        <ele>859.5</ele>
        <time>2016-07-31T09:27:41Z</time>
      </trkpt>
      <trkpt lat="42.4347" lon="0.054">
        <ele>859.6</ele>
        <time>2016-07-31T09:27:43Z</time>
      </trkpt>
      <trkpt lat="42.43467" lon="0.05398">
        <ele>859.7</ele>
        <time>2016-07-31T09:27:45Z</time>
      </trkpt>
      <trkpt lat="42.43464" lon="0.05396">
        <ele>859.9</ele>
        <time>2016-07-31T09:27:47Z</time>
      </trkpt>
      <trkpt lat="42.43462" lon="0.05394">
        <ele>860.1</ele>
        <time>2016-07-31T09:27:49Z</time>
      </trkpt>
      <trkpt lat="42.43459" lon="0.05391">
        <ele>860.6</ele>
        <time>2016-07-31T09:27:51Z</time>
      </trkpt>
      <trkpt lat="42.43457" lon="0.05388">
        <ele>861.2</ele>
        <time>2016-07-31T09:27:53Z</time>
      </trkpt>
      <trkpt lat="42.43454" lon="0.05384">
        <ele>862</ele>
        <time>2016-07-31T09:27:55Z</time>
      </trkpt>
      <trkpt lat="42.43451" lon="0.05381">
        <ele>862.7</ele>
        <time>2016-07-31T09:27:57Z</time>
      </trkpt>
      <trkpt lat="42.43449" lon="0.05377">
        <ele>863.4</ele>
        <time>2016-07-31T09:27:59Z</time>
      </trkpt>
      <trkpt lat="42.43447" lon="0.05374">
        <ele>864.1</ele>
        <time>2016-07-31T09:28:01Z</time>
      </trkpt>
      <trkpt lat="42.43444" lon="0.05371">
        <ele>864.5</ele>
        <time>2016-07-31T09:28:03Z</time>
      </trkpt>
      <trkpt lat="42.43442" lon="0.05368">
        <ele>864.8</ele>
        <time>2016-07-31T09:28:05Z</time>
      </trkpt>
      <trkpt lat="42.4344" lon="0.05365">
        <ele>865.2</ele>
        <time>2016-07-31T09:28:07Z</time>
      </trkpt>
      <trkpt lat="42.43438" lon="0.05362">
        <ele>865.6</ele>
        <time>2016-07-31T09:28:09Z</time>
      </trkpt>
      <trkpt lat="42.43436" lon="0.0536">
        <ele>866</ele>
        <time>2016-07-31T09:28:11Z</time>
      </trkpt>
      <trkpt lat="42.43434" lon="0.05357">
        <ele>866.4</ele>
        <time>2016-07-31T09:28:13Z</time>
      </trkpt>
      <trkpt lat="42.43432" lon="0.05354">
        <ele>866.9</ele>
        <time>2016-07-31T09:28:15Z</time>
      </trkpt>
      <trkpt lat="42.43431" lon="0.0535">
        <ele>867.5</ele>
        <time>2016-07-31T09:28:17Z</time>
      </trkpt>
      <trkpt lat="42.4343" lon="0.05347">
        <ele>868.2</ele>
        <time>2016-07-31T09:28:19Z</time>
      </trkpt>
      <trkpt lat="42.43428" lon="0.05343">
        <ele>868.8</ele>
        <time>2016-07-31T09:28:21Z</time>
      </trkpt>
      <trkpt lat="42.43428" lon="0.0534">
        <ele>869.5</ele>
        <time>2016-07-31T09:28:23Z</time>
      </trkpt>
      <trkpt lat="42.43427" lon="0.05335">
        <ele>870.3</ele>
        <time>2016-07-31T09:28:25Z</time>
      </trkpt>
      <trkpt lat="42.43427" lon="0.05331">
        <ele>871.2</ele>
        <time>2016-07-31T09:28:27Z</time>
      </trkpt>
      <trkpt lat="42.43427" lon="0.05327">
        <ele>872.2</ele>
        <time>2016-07-31T09:28:29Z</time>
      </trkpt>
      <trkpt lat="42.43427" lon="0.05323">
        <ele>872.9</ele>
        <time>2016-07-31T09:28:31Z</time>
      </trkpt>
      <trkpt lat="42.43426" lon="0.05319">
        <ele>873.7</ele>
        <time>2016-07-31T09:28:33Z</time>
      </trkpt>
      <trkpt lat="42.43426" lon="0.05315">
        <ele>874.6</ele>
        <time>2016-07-31T09:28:35Z</time>
      </trkpt>
      <trkpt lat="42.43426" lon="0.0531">
        <ele>875.5</ele>
        <time>2016-07-31T09:28:37Z</time>
      </trkpt>
      <trkpt lat="42.43425" lon="0.05306">
        <ele>876.3</ele>
        <time>2016-07-31T09:28:39Z</time>
      </trkpt>
      <trkpt lat="42.43425" lon="0.05303">
        <ele>877.1</ele>
        <time>2016-07-31T09:28:41Z</time>
      </trkpt>
      <trkpt lat="42.43425" lon="0.05299">
        <ele>877.9</ele>
        <time>2016-07-31T09:28:43Z</time>
      </trkpt>
      <trkpt lat="42.43424" lon="0.05295">
        <ele>878.7</ele>
        <time>2016-07-31T09:28:45Z</time>
      </trkpt>
      <trkpt lat="42.43423" lon="0.05291">
        <ele>879.4</ele>
        <time>2016-07-31T09:28:47Z</time>
      </trkpt>
      <trkpt lat="42.43421" lon="0.05287">
        <ele>880.5</ele>
        <time>2016-07-31T09:28:50Z</time>
      </trkpt>
      <trkpt lat="42.43419" lon="0.05283">
        <ele>881.2</ele>
        <time>2016-07-31T09:28:52Z</time>
      </trkpt>
      <trkpt lat="42.43416" lon="0.05281">
        <ele>881.8</ele>
        <time>2016-07-31T09:28:54Z</time>
      </trkpt>
      <trkpt lat="42.43413" lon="0.05278">
        <ele>882.4</ele>
        <time>2016-07-31T09:28:56Z</time>
      </trkpt>
      <trkpt lat="42.43411" lon="0.05275">
        <ele>883</ele>
        <time>2016-07-31T09:28:58Z</time>
      </trkpt>
      <trkpt lat="42.43408" lon="0.05272">
        <ele>883.6</ele>
        <time>2016-07-31T09:29:00Z</time>
      </trkpt>
      <trkpt lat="42.43405" lon="0.0527">
        <ele>883.9</ele>
        <time>2016-07-31T09:29:02Z</time>
      </trkpt>
      <trkpt lat="42.43402" lon="0.05269">
        <ele>884.1</ele>
        <time>2016-07-31T09:29:04Z</time>
      </trkpt>
      <trkpt lat="42.43399" lon="0.05267">
        <ele>884.3</ele>
        <time>2016-07-31T09:29:06Z</time>
      </trkpt>
      <trkpt lat="42.43396" lon="0.05266">
        <ele>884.4</ele>
        <time>2016-07-31T09:29:08Z</time>
      </trkpt>
      <trkpt lat="42.43392" lon="0.05266">
        <ele>884.4</ele>
        <time>2016-07-31T09:29:10Z</time>
      </trkpt>
      <trkpt lat="42.43389" lon="0.05266">
        <ele>884.2</ele>
        <time>2016-07-31T09:29:12Z</time>
      </trkpt>
      <trkpt lat="42.43385" lon="0.05266">
        <ele>883.9</ele>
        <time>2016-07-31T09:29:14Z</time>
      </trkpt>
      <trkpt lat="42.43382" lon="0.05267">
        <ele>883.6</ele>
        <time>2016-07-31T09:29:16Z</time>
      </trkpt>
      <trkpt lat="42.43379" lon="0.05267">
        <ele>883.3</ele>
        <time>2016-07-31T09:29:18Z</time>
      </trkpt>
      <trkpt lat="42.43375" lon="0.05268">
        <ele>883.1</ele>
        <time>2016-07-31T09:29:20Z</time>
      </trkpt>
      <trkpt lat="42.43372" lon="0.05267">
        <ele>883</ele>
        <time>2016-07-31T09:29:22Z</time>
      </trkpt>
      <trkpt lat="42.43369" lon="0.05266">
        <ele>883.2</ele>
        <time>2016-07-31T09:29:24Z</time>
      </trkpt>
      <trkpt lat="42.43365" lon="0.05264">
        <ele>883.4</ele>
        <time>2016-07-31T09:29:26Z</time>
      </trkpt>
      <trkpt lat="42.43362" lon="0.05262">
        <ele>883.7</ele>
        <time>2016-07-31T09:29:28Z</time>
      </trkpt>
      <trkpt lat="42.43359" lon="0.05259">
        <ele>884.3</ele>
        <time>2016-07-31T09:29:30Z</time>
      </trkpt>
      <trkpt lat="42.43356" lon="0.05256">
        <ele>884.9</ele>
        <time>2016-07-31T09:29:32Z</time>
      </trkpt>
      <trkpt lat="42.43353" lon="0.05253">
        <ele>885.5</ele>
        <time>2016-07-31T09:29:34Z</time>
      </trkpt>
      <trkpt lat="42.43351" lon="0.0525">
        <ele>886</ele>
        <time>2016-07-31T09:29:36Z</time>
      </trkpt>
      <trkpt lat="42.43348" lon="0.05247">
        <ele>886.5</ele>
        <time>2016-07-31T09:29:38Z</time>
      </trkpt>
      <trkpt lat="42.43345" lon="0.05245">
        <ele>887</ele>
        <time>2016-07-31T09:29:40Z</time>
      </trkpt>
      <trkpt lat="42.43342" lon="0.05242">
        <ele>887.4</ele>
        <time>2016-07-31T09:29:42Z</time>
      </trkpt>
      <trkpt lat="42.43339" lon="0.0524">
        <ele>887.8</ele>
        <time>2016-07-31T09:29:44Z</time>
      </trkpt>
      <trkpt lat="42.43336" lon="0.05238">
        <ele>888</ele>
        <time>2016-07-31T09:29:46Z</time>
      </trkpt>
      <trkpt lat="42.43333" lon="0.05236">
        <ele>888.3</ele>
        <time>2016-07-31T09:29:48Z</time>
      </trkpt>
      <trkpt lat="42.43331" lon="0.05234">
        <ele>888.6</ele>
        <time>2016-07-31T09:29:50Z</time>
      </trkpt>
      <trkpt lat="42.43328" lon="0.05232">
        <ele>889.1</ele>
        <time>2016-07-31T09:29:52Z</time>
      </trkpt>
      <trkpt lat="42.43326" lon="0.05229">
        <ele>889.6</ele>
        <time>2016-07-31T09:29:54Z</time>
      </trkpt>
      <trkpt lat="42.43323" lon="0.05225">
        <ele>890.2</ele>
        <time>2016-07-31T09:29:56Z</time>
      </trkpt>
      <trkpt lat="42.4332" lon="0.05222">
        <ele>890.8</ele>
        <time>2016-07-31T09:29:58Z</time>
      </trkpt>
      <trkpt lat="42.43317" lon="0.05219">
        <ele>891.4</ele>
        <time>2016-07-31T09:30:00Z</time>
      </trkpt>
      <trkpt lat="42.43314" lon="0.05216">
        <ele>891.9</ele>
        <time>2016-07-31T09:30:02Z</time>
      </trkpt>
      <trkpt lat="42.43311" lon="0.05212">
        <ele>892.5</ele>
        <time>2016-07-31T09:30:04Z</time>
      </trkpt>
      <trkpt lat="42.43308" lon="0.0521">
        <ele>892.7</ele>
        <time>2016-07-31T09:30:06Z</time>
      </trkpt>
      <trkpt lat="42.43304" lon="0.0521">
        <ele>892.5</ele>
        <time>2016-07-31T09:30:08Z</time>
      </trkpt>
      <trkpt lat="42.43301" lon="0.05209">
        <ele>892.4</ele>
        <time>2016-07-31T09:30:10Z</time>
      </trkpt>
      <trkpt lat="42.43298" lon="0.05209">
        <ele>892.2</ele>
        <time>2016-07-31T09:30:12Z</time>
      </trkpt>
      <trkpt lat="42.43294" lon="0.0521">
        <ele>891.8</ele>
        <time>2016-07-31T09:30:14Z</time>
      </trkpt>
      <trkpt lat="42.43291" lon="0.05211">
        <ele>891.1</ele>
        <time>2016-07-31T09:30:16Z</time>
      </trkpt>
      <trkpt lat="42.43287" lon="0.05211">
        <ele>889.8</ele>
        <time>2016-07-31T09:30:18Z</time>
      </trkpt>
      <trkpt lat="42.43284" lon="0.05211">
        <ele>888.8</ele>
        <time>2016-07-31T09:30:20Z</time>
      </trkpt>
      <trkpt lat="42.43281" lon="0.05211">
        <ele>887.7</ele>
        <time>2016-07-31T09:30:22Z</time>
      </trkpt>
      <trkpt lat="42.43277" lon="0.05211">
        <ele>886.5</ele>
        <time>2016-07-31T09:30:24Z</time>
      </trkpt>
      <trkpt lat="42.43274" lon="0.05211">
        <ele>885.6</ele>
        <time>2016-07-31T09:30:26Z</time>
      </trkpt>
      <trkpt lat="42.43271" lon="0.05211">
        <ele>884.5</ele>
        <time>2016-07-31T09:30:28Z</time>
      </trkpt>
      <trkpt lat="42.43267" lon="0.0521">
        <ele>883.4</ele>
        <time>2016-07-31T09:30:30Z</time>
      </trkpt>
      <trkpt lat="42.43264" lon="0.05209">
        <ele>882.4</ele>
        <time>2016-07-31T09:30:32Z</time>
      </trkpt>
      <trkpt lat="42.4326" lon="0.05209">
        <ele>881.3</ele>
        <time>2016-07-31T09:30:34Z</time>
      </trkpt>
      <trkpt lat="42.43257" lon="0.05209">
        <ele>880.2</ele>
        <time>2016-07-31T09:30:36Z</time>
      </trkpt>
      <trkpt lat="42.43253" lon="0.05208">
        <ele>879.4</ele>
        <time>2016-07-31T09:30:38Z</time>
      </trkpt>
      <trkpt lat="42.4325" lon="0.05206">
        <ele>878.5</ele>
        <time>2016-07-31T09:30:40Z</time>
      </trkpt>
      <trkpt lat="42.43247" lon="0.05206">
        <ele>877.6</ele>
        <time>2016-07-31T09:30:42Z</time>
      </trkpt>
      <trkpt lat="42.43243" lon="0.05205">
        <ele>876.6</ele>
        <time>2016-07-31T09:30:44Z</time>
      </trkpt>
      <trkpt lat="42.4324" lon="0.05204">
        <ele>875.8</ele>
        <time>2016-07-31T09:30:46Z</time>
      </trkpt>
      <trkpt lat="42.43237" lon="0.05203">
        <ele>875.1</ele>
        <time>2016-07-31T09:30:48Z</time>
      </trkpt>
      <trkpt lat="42.43234" lon="0.05201">
        <ele>875.1</ele>
        <time>2016-07-31T09:30:50Z</time>
      </trkpt>
      <trkpt lat="42.43233" lon="0.05197">
        <ele>875.9</ele>
        <time>2016-07-31T09:30:52Z</time>
      </trkpt>
      <trkpt lat="42.43235" lon="0.05192">
        <ele>877.6</ele>
        <time>2016-07-31T09:30:54Z</time>
      </trkpt>
      <trkpt lat="42.43238" lon="0.05189">
        <ele>879.4</ele>
        <time>2016-07-31T09:30:56Z</time>
      </trkpt>
      <trkpt lat="42.43241" lon="0.05188">
        <ele>880.8</ele>
        <time>2016-07-31T09:30:58Z</time>
      </trkpt>
      <trkpt lat="42.43245" lon="0.05188">
        <ele>881.7</ele>
        <time>2016-07-31T09:31:00Z</time>
      </trkpt>
      <trkpt lat="42.43248" lon="0.0519">
        <ele>882.4</ele>
        <time>2016-07-31T09:31:02Z</time>
      </trkpt>
      <trkpt lat="42.43252" lon="0.05191">
        <ele>883.2</ele>
        <time>2016-07-31T09:31:04Z</time>
      </trkpt>
      <trkpt lat="42.43256" lon="0.05192">
        <ele>884.1</ele>
        <time>2016-07-31T09:31:06Z</time>
      </trkpt>
      <trkpt lat="42.4326" lon="0.05193">
        <ele>885.1</ele>
        <time>2016-07-31T09:31:08Z</time>
      </trkpt>
      <trkpt lat="42.43263" lon="0.05192">
        <ele>886.2</ele>
        <time>2016-07-31T09:31:10Z</time>
      </trkpt>
      <trkpt lat="42.43266" lon="0.05191">
        <ele>887.3</ele>
        <time>2016-07-31T09:31:12Z</time>
      </trkpt>
      <trkpt lat="42.43269" lon="0.0519">
        <ele>888.5</ele>
        <time>2016-07-31T09:31:14Z</time>
      </trkpt>
      <trkpt lat="42.43272" lon="0.05188">
        <ele>889.8</ele>
        <time>2016-07-31T09:31:16Z</time>
      </trkpt>
      <trkpt lat="42.43275" lon="0.05186">
        <ele>891.1</ele>
        <time>2016-07-31T09:31:18Z</time>
      </trkpt>
      <trkpt lat="42.43278" lon="0.05183">
        <ele>892.5</ele>
        <time>2016-07-31T09:31:20Z</time>
      </trkpt>
      <trkpt lat="42.43281" lon="0.0518">
        <ele>893.9</ele>
        <time>2016-07-31T09:31:22Z</time>
      </trkpt>
      <trkpt lat="42.43283" lon="0.05178">
        <ele>895.3</ele>
        <time>2016-07-31T09:31:24Z</time>
      </trkpt>
      <trkpt lat="42.43286" lon="0.05175">
        <ele>896.6</ele>
        <time>2016-07-31T09:31:26Z</time>
      </trkpt>
      <trkpt lat="42.4329" lon="0.05173">
        <ele>897.8</ele>
        <time>2016-07-31T09:31:28Z</time>
      </trkpt>
      <trkpt lat="42.43293" lon="0.05171">
        <ele>898.8</ele>
        <time>2016-07-31T09:31:30Z</time>
      </trkpt>
      <trkpt lat="42.43295" lon="0.05167">
        <ele>899.7</ele>
        <time>2016-07-31T09:31:32Z</time>
      </trkpt>
      <trkpt lat="42.43296" lon="0.05163">
        <ele>900.6</ele>
        <time>2016-07-31T09:31:34Z</time>
      </trkpt>
      <trkpt lat="42.43298" lon="0.05159">
        <ele>901.5</ele>
        <time>2016-07-31T09:31:36Z</time>
      </trkpt>
      <trkpt lat="42.43299" lon="0.05154">
        <ele>902.3</ele>
        <time>2016-07-31T09:31:38Z</time>
      </trkpt>
      <trkpt lat="42.43301" lon="0.0515">
        <ele>903.2</ele>
        <time>2016-07-31T09:31:40Z</time>
      </trkpt>
      <trkpt lat="42.43303" lon="0.05147">
        <ele>904</ele>
        <time>2016-07-31T09:31:42Z</time>
      </trkpt>
      <trkpt lat="42.43306" lon="0.05144">
        <ele>904.7</ele>
        <time>2016-07-31T09:31:44Z</time>
      </trkpt>
      <trkpt lat="42.43309" lon="0.05142">
        <ele>905.4</ele>
        <time>2016-07-31T09:31:46Z</time>
      </trkpt>
      <trkpt lat="42.43312" lon="0.05139">
        <ele>906.1</ele>
        <time>2016-07-31T09:31:48Z</time>
      </trkpt>
      <trkpt lat="42.43315" lon="0.05137">
        <ele>906.8</ele>
        <time>2016-07-31T09:31:50Z</time>
      </trkpt>
      <trkpt lat="42.43319" lon="0.05136">
        <ele>907.3</ele>
        <time>2016-07-31T09:31:52Z</time>
      </trkpt>
      <trkpt lat="42.43323" lon="0.05136">
        <ele>907.6</ele>
        <time>2016-07-31T09:31:54Z</time>
      </trkpt>
      <trkpt lat="42.43328" lon="0.05137">
        <ele>907.8</ele>
        <time>2016-07-31T09:31:56Z</time>
      </trkpt>
      <trkpt lat="42.43332" lon="0.05139">
        <ele>907.8</ele>
        <time>2016-07-31T09:31:58Z</time>
      </trkpt>
      <trkpt lat="42.43335" lon="0.05143">
        <ele>907.4</ele>
        <time>2016-07-31T09:32:00Z</time>
      </trkpt>
      <trkpt lat="42.43339" lon="0.05146">
        <ele>907</ele>
        <time>2016-07-31T09:32:02Z</time>
      </trkpt>
      <trkpt lat="42.43342" lon="0.05148">
        <ele>906.9</ele>
        <time>2016-07-31T09:32:03Z</time>
      </trkpt>
      <trkpt lat="42.43345" lon="0.0515">
        <ele>906.9</ele>
        <time>2016-07-31T09:32:04Z</time>
      </trkpt>
      <trkpt lat="42.43348" lon="0.0515">
        <ele>907</ele>
        <time>2016-07-31T09:32:05Z</time>
      </trkpt>
      <trkpt lat="42.43351" lon="0.05151">
        <ele>907.1</ele>
        <time>2016-07-31T09:32:06Z</time>
      </trkpt>
      <trkpt lat="42.43354" lon="0.05151">
        <ele>907.3</ele>
        <time>2016-07-31T09:32:07Z</time>
      </trkpt>
      <trkpt lat="42.43357" lon="0.05151">
        <ele>907.6</ele>
        <time>2016-07-31T09:32:08Z</time>
      </trkpt>
      <trkpt lat="42.4336" lon="0.0515">
        <ele>907.9</ele>
        <time>2016-07-31T09:32:09Z</time>
      </trkpt>
      <trkpt lat="42.43362" lon="0.05149">
        <ele>908.4</ele>
        <time>2016-07-31T09:32:10Z</time>
      </trkpt>
      <trkpt lat="42.43365" lon="0.05148">
        <ele>908.9</ele>
        <time>2016-07-31T09:32:11Z</time>
      </trkpt>
      <trkpt lat="42.43367" lon="0.05146">
        <ele>909.4</ele>
        <time>2016-07-31T09:32:12Z</time>
      </trkpt>
      <trkpt lat="42.4337" lon="0.05144">
        <ele>910</ele>
        <time>2016-07-31T09:32:13Z</time>
      </trkpt>
      <trkpt lat="42.43374" lon="0.0514">
        <ele>911</ele>
        <time>2016-07-31T09:32:15Z</time>
      </trkpt>
      <trkpt lat="42.43378" lon="0.05137">
        <ele>911.9</ele>
        <time>2016-07-31T09:32:17Z</time>
      </trkpt>
      <trkpt lat="42.43382" lon="0.05136">
        <ele>912.7</ele>
        <time>2016-07-31T09:32:19Z</time>
      </trkpt>
      <trkpt lat="42.43387" lon="0.05136">
        <ele>913.2</ele>
        <time>2016-07-31T09:32:21Z</time>
      </trkpt>
      <trkpt lat="42.43393" lon="0.05137">
        <ele>913.6</ele>
        <time>2016-07-31T09:32:23Z</time>
      </trkpt>
      <trkpt lat="42.43398" lon="0.05139">
        <ele>913.8</ele>
        <time>2016-07-31T09:32:25Z</time>
      </trkpt>
      <trkpt lat="42.43403" lon="0.05141">
        <ele>913.9</ele>
        <time>2016-07-31T09:32:27Z</time>
      </trkpt>
      <trkpt lat="42.43408" lon="0.05143">
        <ele>914</ele>
        <time>2016-07-31T09:32:29Z</time>
      </trkpt>
      <trkpt lat="42.4341" lon="0.05143">
        <ele>914.2</ele>
        <time>2016-07-31T09:32:30Z</time>
      </trkpt>
      <trkpt lat="42.43416" lon="0.05145">
        <ele>914.4</ele>
        <time>2016-07-31T09:32:32Z</time>
      </trkpt>
      <trkpt lat="42.43421" lon="0.05146">
        <ele>914.6</ele>
        <time>2016-07-31T09:32:34Z</time>
      </trkpt>
      <trkpt lat="42.43426" lon="0.05148">
        <ele>914.7</ele>
        <time>2016-07-31T09:32:36Z</time>
      </trkpt>
      <trkpt lat="42.43431" lon="0.0515">
        <ele>914.7</ele>
        <time>2016-07-31T09:32:38Z</time>
      </trkpt>
      <trkpt lat="42.43435" lon="0.05153">
        <ele>914.4</ele>
        <time>2016-07-31T09:32:40Z</time>
      </trkpt>
      <trkpt lat="42.43439" lon="0.05156">
        <ele>914.1</ele>
        <time>2016-07-31T09:32:42Z</time>
      </trkpt>
      <trkpt lat="42.43443" lon="0.05159">
        <ele>913.6</ele>
        <time>2016-07-31T09:32:44Z</time>
      </trkpt>
      <trkpt lat="42.43448" lon="0.05162">
        <ele>913.2</ele>
        <time>2016-07-31T09:32:46Z</time>
      </trkpt>
      <trkpt lat="42.43452" lon="0.05165">
        <ele>912.8</ele>
        <time>2016-07-31T09:32:48Z</time>
      </trkpt>
      <trkpt lat="42.43456" lon="0.05168">
        <ele>912.4</ele>
        <time>2016-07-31T09:32:50Z</time>
      </trkpt>
      <trkpt lat="42.4346" lon="0.05171">
        <ele>912.2</ele>
        <time>2016-07-31T09:32:52Z</time>
      </trkpt>
      <trkpt lat="42.43465" lon="0.05174">
        <ele>912</ele>
        <time>2016-07-31T09:32:54Z</time>
      </trkpt>
      <trkpt lat="42.43469" lon="0.05177">
        <ele>911.9</ele>
        <time>2016-07-31T09:32:56Z</time>
      </trkpt>
      <trkpt lat="42.43473" lon="0.05179">
        <ele>912</ele>
        <time>2016-07-31T09:32:58Z</time>
      </trkpt>
      <trkpt lat="42.43478" lon="0.0518">
        <ele>912.2</ele>
        <time>2016-07-31T09:33:00Z</time>
      </trkpt>
      <trkpt lat="42.43482" lon="0.05181">
        <ele>912.5</ele>
        <time>2016-07-31T09:33:02Z</time>
      </trkpt>
      <trkpt lat="42.43486" lon="0.05182">
        <ele>912.9</ele>
        <time>2016-07-31T09:33:04Z</time>
      </trkpt>
      <trkpt lat="42.43491" lon="0.05184">
        <ele>913.2</ele>
        <time>2016-07-31T09:33:06Z</time>
      </trkpt>
      <trkpt lat="42.43495" lon="0.05186">
        <ele>913.3</ele>
        <time>2016-07-31T09:33:08Z</time>
      </trkpt>
      <trkpt lat="42.43499" lon="0.05189">
        <ele>913</ele>
        <time>2016-07-31T09:33:10Z</time>
      </trkpt>
      <trkpt lat="42.43503" lon="0.05192">
        <ele>912.7</ele>
        <time>2016-07-31T09:33:12Z</time>
      </trkpt>
      <trkpt lat="42.43507" lon="0.05196">
        <ele>912.3</ele>
        <time>2016-07-31T09:33:14Z</time>
      </trkpt>
      <trkpt lat="42.43511" lon="0.05201">
        <ele>911.5</ele>
        <time>2016-07-31T09:33:16Z</time>
      </trkpt>
      <trkpt lat="42.43514" lon="0.05206">
        <ele>910.8</ele>
        <time>2016-07-31T09:33:18Z</time>
      </trkpt>
      <trkpt lat="42.43518" lon="0.05211">
        <ele>910.1</ele>
        <time>2016-07-31T09:33:20Z</time>
      </trkpt>
      <trkpt lat="42.43521" lon="0.05215">
        <ele>909.7</ele>
        <time>2016-07-31T09:33:22Z</time>
      </trkpt>
      <trkpt lat="42.43524" lon="0.0522">
        <ele>909.3</ele>
        <time>2016-07-31T09:33:24Z</time>
      </trkpt>
      <trkpt lat="42.43527" lon="0.05225">
        <ele>908.7</ele>
        <time>2016-07-31T09:33:26Z</time>
      </trkpt>
      <trkpt lat="42.43529" lon="0.05231">
        <ele>908</ele>
        <time>2016-07-31T09:33:28Z</time>
      </trkpt>
      <trkpt lat="42.43532" lon="0.05236">
        <ele>907.6</ele>
        <time>2016-07-31T09:33:30Z</time>
      </trkpt>
      <trkpt lat="42.43535" lon="0.0524">
        <ele>907.4</ele>
        <time>2016-07-31T09:33:32Z</time>
      </trkpt>
      <trkpt lat="42.43538" lon="0.05242">
        <ele>907.7</ele>
        <time>2016-07-31T09:33:34Z</time>
      </trkpt>
      <trkpt lat="42.43542" lon="0.05243">
        <ele>908.3</ele>
        <time>2016-07-31T09:33:36Z</time>
      </trkpt>
      <trkpt lat="42.43545" lon="0.0524">
        <ele>909.2</ele>
        <time>2016-07-31T09:33:38Z</time>
      </trkpt>
      <trkpt lat="42.43546" lon="0.05236">
        <ele>910.2</ele>
        <time>2016-07-31T09:33:40Z</time>
      </trkpt>
      <trkpt lat="42.43544" lon="0.05231">
        <ele>910.8</ele>
        <time>2016-07-31T09:33:42Z</time>
      </trkpt>
      <trkpt lat="42.43542" lon="0.05227">
        <ele>911</ele>
        <time>2016-07-31T09:33:44Z</time>
      </trkpt>
      <trkpt lat="42.4354" lon="0.05222">
        <ele>911.4</ele>
        <time>2016-07-31T09:33:46Z</time>
      </trkpt>
      <trkpt lat="42.43538" lon="0.05217">
        <ele>912</ele>
        <time>2016-07-31T09:33:48Z</time>
      </trkpt>
      <trkpt lat="42.43537" lon="0.05213">
        <ele>912.5</ele>
        <time>2016-07-31T09:33:50Z</time>
      </trkpt>
      <trkpt lat="42.43535" lon="0.05208">
        <ele>913.1</ele>
        <time>2016-07-31T09:33:52Z</time>
      </trkpt>
      <trkpt lat="42.43533" lon="0.05204">
        <ele>913.9</ele>
        <time>2016-07-31T09:33:54Z</time>
      </trkpt>
      <trkpt lat="42.43531" lon="0.052">
        <ele>914.6</ele>
        <time>2016-07-31T09:33:56Z</time>
      </trkpt>
      <trkpt lat="42.43529" lon="0.05195">
        <ele>915.5</ele>
        <time>2016-07-31T09:33:58Z</time>
      </trkpt>
      <trkpt lat="42.43527" lon="0.05191">
        <ele>916.4</ele>
        <time>2016-07-31T09:34:00Z</time>
      </trkpt>
      <trkpt lat="42.43525" lon="0.05187">
        <ele>917.4</ele>
        <time>2016-07-31T09:34:02Z</time>
      </trkpt>
      <trkpt lat="42.43524" lon="0.05182">
        <ele>918.4</ele>
        <time>2016-07-31T09:34:04Z</time>
      </trkpt>
      <trkpt lat="42.43522" lon="0.05177">
        <ele>919.5</ele>
        <time>2016-07-31T09:34:06Z</time>
      </trkpt>
      <trkpt lat="42.43521" lon="0.05172">
        <ele>920.5</ele>
        <time>2016-07-31T09:34:08Z</time>
      </trkpt>
      <trkpt lat="42.4352" lon="0.05167">
        <ele>921.7</ele>
        <time>2016-07-31T09:34:10Z</time>
      </trkpt>
      <trkpt lat="42.43519" lon="0.05162">
        <ele>922.8</ele>
        <time>2016-07-31T09:34:12Z</time>
      </trkpt>
      <trkpt lat="42.43517" lon="0.05158">
        <ele>923.6</ele>
        <time>2016-07-31T09:34:14Z</time>
      </trkpt>
      <trkpt lat="42.43514" lon="0.05154">
        <ele>924.3</ele>
        <time>2016-07-31T09:34:16Z</time>
      </trkpt>
      <trkpt lat="42.43511" lon="0.0515">
        <ele>925</ele>
        <time>2016-07-31T09:34:18Z</time>
      </trkpt>
      <trkpt lat="42.43508" lon="0.05148">
        <ele>925.1</ele>
        <time>2016-07-31T09:34:20Z</time>
      </trkpt>
      <trkpt lat="42.43504" lon="0.05147">
        <ele>924.8</ele>
        <time>2016-07-31T09:34:22Z</time>
      </trkpt>
      <trkpt lat="42.43501" lon="0.05145">
        <ele>924.8</ele>
        <time>2016-07-31T09:34:24Z</time>
      </trkpt>
      <trkpt lat="42.43499" lon="0.05142">
        <ele>925.4</ele>
        <time>2016-07-31T09:34:26Z</time>
      </trkpt>
      <trkpt lat="42.43499" lon="0.05138">
        <ele>926.4</ele>
        <time>2016-07-31T09:34:28Z</time>
      </trkpt>
      <trkpt lat="42.435" lon="0.05134">
        <ele>927.6</ele>
        <time>2016-07-31T09:34:30Z</time>
      </trkpt>
      <trkpt lat="42.43503" lon="0.05133">
        <ele>928.3</ele>
        <time>2016-07-31T09:34:32Z</time>
      </trkpt>
      <trkpt lat="42.43507" lon="0.05134">
        <ele>928.7</ele>
        <time>2016-07-31T09:34:35Z</time>
      </trkpt>
      <trkpt lat="42.43511" lon="0.05137">
        <ele>928.4</ele>
        <time>2016-07-31T09:34:37Z</time>
      </trkpt>
      <trkpt lat="42.43515" lon="0.05141">
        <ele>928.1</ele>
        <time>2016-07-31T09:34:39Z</time>
      </trkpt>
      <trkpt lat="42.43519" lon="0.05144">
        <ele>927.8</ele>
        <time>2016-07-31T09:34:41Z</time>
      </trkpt>
      <trkpt lat="42.43523" lon="0.05148">
        <ele>927.4</ele>
        <time>2016-07-31T09:34:43Z</time>
      </trkpt>
      <trkpt lat="42.43527" lon="0.05152">
        <ele>926.9</ele>
        <time>2016-07-31T09:34:45Z</time>
      </trkpt>
      <trkpt lat="42.4353" lon="0.05156">
        <ele>926.2</ele>
        <time>2016-07-31T09:34:47Z</time>
      </trkpt>
      <trkpt lat="42.43533" lon="0.0516">
        <ele>925.4</ele>
        <time>2016-07-31T09:34:49Z</time>
      </trkpt>
      <trkpt lat="42.43536" lon="0.05165">
        <ele>924.7</ele>
        <time>2016-07-31T09:34:51Z</time>
      </trkpt>
      <trkpt lat="42.43539" lon="0.05168">
        <ele>924.2</ele>
        <time>2016-07-31T09:34:53Z</time>
      </trkpt>
      <trkpt lat="42.43542" lon="0.05172">
        <ele>923.8</ele>
        <time>2016-07-31T09:34:55Z</time>
      </trkpt>
      <trkpt lat="42.43546" lon="0.05175">
        <ele>923.6</ele>
        <time>2016-07-31T09:34:57Z</time>
      </trkpt>
      <trkpt lat="42.4355" lon="0.05178">
        <ele>923.7</ele>
        <time>2016-07-31T09:34:59Z</time>
      </trkpt>
      <trkpt lat="42.43554" lon="0.05181">
        <ele>923.6</ele>
        <time>2016-07-31T09:35:01Z</time>
      </trkpt>
      <trkpt lat="42.43557" lon="0.05185">
        <ele>923.3</ele>
        <time>2016-07-31T09:35:03Z</time>
      </trkpt>
      <trkpt lat="42.4356" lon="0.05189">
        <ele>923</ele>
        <time>2016-07-31T09:35:05Z</time>
      </trkpt>
      <trkpt lat="42.43564" lon="0.05193">
        <ele>922.8</ele>
        <time>2016-07-31T09:35:07Z</time>
      </trkpt>
      <trkpt lat="42.43567" lon="0.05197">
        <ele>922.4</ele>
        <time>2016-07-31T09:35:09Z</time>
      </trkpt>
      <trkpt lat="42.4357" lon="0.05201">
        <ele>922.1</ele>
        <time>2016-07-31T09:35:11Z</time>
      </trkpt>
      <trkpt lat="42.43573" lon="0.05204">
        <ele>922.3</ele>
        <time>2016-07-31T09:35:13Z</time>
      </trkpt>
      <trkpt lat="42.43577" lon="0.05203">
        <ele>923.4</ele>
        <time>2016-07-31T09:35:15Z</time>
      </trkpt>
      <trkpt lat="42.43581" lon="0.052">
        <ele>924.9</ele>
        <time>2016-07-31T09:35:17Z</time>
      </trkpt>
      <trkpt lat="42.43582" lon="0.05195">
        <ele>926.1</ele>
        <time>2016-07-31T09:35:19Z</time>
      </trkpt>
      <trkpt lat="42.4358" lon="0.05191">
        <ele>926.7</ele>
        <time>2016-07-31T09:35:21Z</time>
      </trkpt>
      <trkpt lat="42.43577" lon="0.05187">
        <ele>926.9</ele>
        <time>2016-07-31T09:35:23Z</time>
      </trkpt>
      <trkpt lat="42.43574" lon="0.05183">
        <ele>927.3</ele>
        <time>2016-07-31T09:35:25Z</time>
      </trkpt>
      <trkpt lat="42.43572" lon="0.05179">
        <ele>927.8</ele>
        <time>2016-07-31T09:35:27Z</time>
      </trkpt>
      <trkpt lat="42.4357" lon="0.05174">
        <ele>928.5</ele>
        <time>2016-07-31T09:35:29Z</time>
      </trkpt>
      <trkpt lat="42.43569" lon="0.05169">
        <ele>929.4</ele>
        <time>2016-07-31T09:35:31Z</time>
      </trkpt>
      <trkpt lat="42.43567" lon="0.05165">
        <ele>930.1</ele>
        <time>2016-07-31T09:35:33Z</time>
      </trkpt>
      <trkpt lat="42.43566" lon="0.05161">
        <ele>930.8</ele>
        <time>2016-07-31T09:35:35Z</time>
      </trkpt>
      <trkpt lat="42.43564" lon="0.05157">
        <ele>931.6</ele>
        <time>2016-07-31T09:35:37Z</time>
      </trkpt>
      <trkpt lat="42.43563" lon="0.05153">
        <ele>932.3</ele>
        <time>2016-07-31T09:35:39Z</time>
      </trkpt>
      <trkpt lat="42.4356" lon="0.05149">
        <ele>932.8</ele>
        <time>2016-07-31T09:35:41Z</time>
      </trkpt>
      <trkpt lat="42.43559" lon="0.05145">
        <ele>933.5</ele>
        <time>2016-07-31T09:35:43Z</time>
      </trkpt>
      <trkpt lat="42.43558" lon="0.05141">
        <ele>934.3</ele>
        <time>2016-07-31T09:35:45Z</time>
      </trkpt>
      <trkpt lat="42.43558" lon="0.05136">
        <ele>935.5</ele>
        <time>2016-07-31T09:35:47Z</time>
      </trkpt>
      <trkpt lat="42.4356" lon="0.05133">
        <ele>936.6</ele>
        <time>2016-07-31T09:35:49Z</time>
      </trkpt>
      <trkpt lat="42.43563" lon="0.05132">
        <ele>937.4</ele>
        <time>2016-07-31T09:35:51Z</time>
      </trkpt>
      <trkpt lat="42.43567" lon="0.05132">
        <ele>937.8</ele>
        <time>2016-07-31T09:35:54Z</time>
      </trkpt>
      <trkpt lat="42.43569" lon="0.05136">
        <ele>937.3</ele>
        <time>2016-07-31T09:35:56Z</time>
      </trkpt>
      <trkpt lat="42.43572" lon="0.05141">
        <ele>936.6</ele>
        <time>2016-07-31T09:35:58Z</time>
      </trkpt>
      <trkpt lat="42.43574" lon="0.05146">
        <ele>935.9</ele>
        <time>2016-07-31T09:36:00Z</time>
      </trkpt>
      <trkpt lat="42.43577" lon="0.0515">
        <ele>935.3</ele>
        <time>2016-07-31T09:36:02Z</time>
      </trkpt>
      <trkpt lat="42.43579" lon="0.05155">
        <ele>934.8</ele>
        <time>2016-07-31T09:36:04Z</time>
      </trkpt>
      <trkpt lat="42.43583" lon="0.05158">
        <ele>934.4</ele>
        <time>2016-07-31T09:36:06Z</time>
      </trkpt>
      <trkpt lat="42.43586" lon="0.05162">
        <ele>934.3</ele>
        <time>2016-07-31T09:36:08Z</time>
      </trkpt>
      <trkpt lat="42.43589" lon="0.05165">
        <ele>934.1</ele>
        <time>2016-07-31T09:36:10Z</time>
      </trkpt>
      <trkpt lat="42.43592" lon="0.05168">
        <ele>934.1</ele>
        <time>2016-07-31T09:36:12Z</time>
      </trkpt>
      <trkpt lat="42.43596" lon="0.0517">
        <ele>934.4</ele>
        <time>2016-07-31T09:36:14Z</time>
      </trkpt>
      <trkpt lat="42.43599" lon="0.05172">
        <ele>934.6</ele>
        <time>2016-07-31T09:36:16Z</time>
      </trkpt>
      <trkpt lat="42.43603" lon="0.05173">
        <ele>935</ele>
        <time>2016-07-31T09:36:18Z</time>
      </trkpt>
      <trkpt lat="42.43607" lon="0.05175">
        <ele>935.5</ele>
        <time>2016-07-31T09:36:20Z</time>
      </trkpt>
      <trkpt lat="42.43611" lon="0.05175">
        <ele>936.2</ele>
        <time>2016-07-31T09:36:22Z</time>
      </trkpt>
      <trkpt lat="42.43615" lon="0.05175">
        <ele>937</ele>
        <time>2016-07-31T09:36:24Z</time>
      </trkpt>
      <trkpt lat="42.43619" lon="0.05175">
        <ele>937.9</ele>
        <time>2016-07-31T09:36:26Z</time>
      </trkpt>
      <trkpt lat="42.43623" lon="0.05175">
        <ele>938.8</ele>
        <time>2016-07-31T09:36:28Z</time>
      </trkpt>
      <trkpt lat="42.43628" lon="0.05174">
        <ele>939.5</ele>
        <time>2016-07-31T09:36:30Z</time>
      </trkpt>
      <trkpt lat="42.43632" lon="0.05173">
        <ele>940.1</ele>
        <time>2016-07-31T09:36:32Z</time>
      </trkpt>
      <trkpt lat="42.43636" lon="0.05172">
        <ele>940.7</ele>
        <time>2016-07-31T09:36:34Z</time>
      </trkpt>
      <trkpt lat="42.4364" lon="0.05171">
        <ele>941.3</ele>
        <time>2016-07-31T09:36:36Z</time>
      </trkpt>
      <trkpt lat="42.43643" lon="0.05169">
        <ele>942.1</ele>
        <time>2016-07-31T09:36:38Z</time>
      </trkpt>
      <trkpt lat="42.43646" lon="0.05166">
        <ele>943.1</ele>
        <time>2016-07-31T09:36:40Z</time>
      </trkpt>
      <trkpt lat="42.43647" lon="0.05162">
        <ele>943.9</ele>
        <time>2016-07-31T09:36:42Z</time>
      </trkpt>
      <trkpt lat="42.43646" lon="0.05158">
        <ele>944.7</ele>
        <time>2016-07-31T09:36:44Z</time>
      </trkpt>
      <trkpt lat="42.43645" lon="0.05153">
        <ele>945.5</ele>
        <time>2016-07-31T09:36:46Z</time>
      </trkpt>
      <trkpt lat="42.43643" lon="0.05149">
        <ele>946</ele>
        <time>2016-07-31T09:36:48Z</time>
      </trkpt>
      <trkpt lat="42.4364" lon="0.05147">
        <ele>946.1</ele>
        <time>2016-07-31T09:36:50Z</time>
      </trkpt>
      <trkpt lat="42.43637" lon="0.05145">
        <ele>946</ele>
        <time>2016-07-31T09:36:52Z</time>
      </trkpt>
      <trkpt lat="42.43634" lon="0.05143">
        <ele>945.9</ele>
        <time>2016-07-31T09:36:54Z</time>
      </trkpt>
      <trkpt lat="42.43631" lon="0.05142">
        <ele>945.7</ele>
        <time>2016-07-31T09:36:56Z</time>
      </trkpt>
      <trkpt lat="42.43627" lon="0.05141">
        <ele>945.5</ele>
        <time>2016-07-31T09:36:58Z</time>
      </trkpt>
      <trkpt lat="42.43624" lon="0.05139">
        <ele>945.4</ele>
        <time>2016-07-31T09:37:00Z</time>
      </trkpt>
      <trkpt lat="42.43622" lon="0.05136">
        <ele>945.5</ele>
        <time>2016-07-31T09:37:02Z</time>
      </trkpt>
      <trkpt lat="42.43619" lon="0.05133">
        <ele>945.6</ele>
        <time>2016-07-31T09:37:04Z</time>
      </trkpt>
      <trkpt lat="42.43617" lon="0.0513">
        <ele>945.8</ele>
        <time>2016-07-31T09:37:06Z</time>
      </trkpt>
      <trkpt lat="42.43615" lon="0.05127">
        <ele>946.1</ele>
        <time>2016-07-31T09:37:08Z</time>
      </trkpt>
      <trkpt lat="42.43613" lon="0.05124">
        <ele>946.5</ele>
        <time>2016-07-31T09:37:10Z</time>
      </trkpt>
      <trkpt lat="42.4361" lon="0.05121">
        <ele>946.9</ele>
        <time>2016-07-31T09:37:12Z</time>
      </trkpt>
      <trkpt lat="42.43608" lon="0.05118">
        <ele>947.4</ele>
        <time>2016-07-31T09:37:14Z</time>
      </trkpt>
      <trkpt lat="42.43606" lon="0.05115">
        <ele>947.8</ele>
        <time>2016-07-31T09:37:16Z</time>
      </trkpt>
      <trkpt lat="42.43603" lon="0.05113">
        <ele>948.1</ele>
        <time>2016-07-31T09:37:18Z</time>
      </trkpt>
      <trkpt lat="42.43601" lon="0.0511">
        <ele>948.5</ele>
        <time>2016-07-31T09:37:20Z</time>
      </trkpt>
      <trkpt lat="42.43598" lon="0.05107">
        <ele>949</ele>
        <time>2016-07-31T09:37:22Z</time>
      </trkpt>
      <trkpt lat="42.43596" lon="0.05103">
        <ele>949.5</ele>
        <time>2016-07-31T09:37:24Z</time>
      </trkpt>
      <trkpt lat="42.43592" lon="0.05099">
        <ele>950.2</ele>
        <time>2016-07-31T09:37:26Z</time>
      </trkpt>
      <trkpt lat="42.43588" lon="0.05095">
        <ele>950.8</ele>
        <time>2016-07-31T09:37:28Z</time>
      </trkpt>
      <trkpt lat="42.43585" lon="0.05091">
        <ele>951.5</ele>
        <time>2016-07-31T09:37:30Z</time>
      </trkpt>
      <trkpt lat="42.43582" lon="0.05087">
        <ele>952.2</ele>
        <time>2016-07-31T09:37:32Z</time>
      </trkpt>
      <trkpt lat="42.43579" lon="0.05083">
        <ele>952.8</ele>
        <time>2016-07-31T09:37:34Z</time>
      </trkpt>
      <trkpt lat="42.43576" lon="0.05081">
        <ele>953.1</ele>
        <time>2016-07-31T09:37:36Z</time>
      </trkpt>
      <trkpt lat="42.43574" lon="0.05078">
        <ele>953.6</ele>
        <time>2016-07-31T09:37:38Z</time>
      </trkpt>
      <trkpt lat="42.43572" lon="0.05074">
        <ele>954.2</ele>
        <time>2016-07-31T09:37:40Z</time>
      </trkpt>
      <trkpt lat="42.43569" lon="0.05071">
        <ele>954.7</ele>
        <time>2016-07-31T09:37:42Z</time>
      </trkpt>
      <trkpt lat="42.43565" lon="0.05068">
        <ele>955.1</ele>
        <time>2016-07-31T09:37:44Z</time>
      </trkpt>
      <trkpt lat="42.43562" lon="0.05065">
        <ele>955.6</ele>
        <time>2016-07-31T09:37:46Z</time>
      </trkpt>
      <trkpt lat="42.43559" lon="0.05063">
        <ele>955.9</ele>
        <time>2016-07-31T09:37:48Z</time>
      </trkpt>
      <trkpt lat="42.43555" lon="0.0506">
        <ele>956.2</ele>
        <time>2016-07-31T09:37:50Z</time>
      </trkpt>
      <trkpt lat="42.43551" lon="0.05058">
        <ele>956.5</ele>
        <time>2016-07-31T09:37:52Z</time>
      </trkpt>
      <trkpt lat="42.43548" lon="0.05055">
        <ele>957</ele>
        <time>2016-07-31T09:37:54Z</time>
      </trkpt>
      <trkpt lat="42.43544" lon="0.05052">
        <ele>957.4</ele>
        <time>2016-07-31T09:37:56Z</time>
      </trkpt>
      <trkpt lat="42.4354" lon="0.05049">
        <ele>957.6</ele>
        <time>2016-07-31T09:37:58Z</time>
      </trkpt>
      <trkpt lat="42.43536" lon="0.05047">
        <ele>957.7</ele>
        <time>2016-07-31T09:38:00Z</time>
      </trkpt>
      <trkpt lat="42.43532" lon="0.05045">
        <ele>957.9</ele>
        <time>2016-07-31T09:38:02Z</time>
      </trkpt>
      <trkpt lat="42.43529" lon="0.05043">
        <ele>958.1</ele>
        <time>2016-07-31T09:38:04Z</time>
      </trkpt>
      <trkpt lat="42.43526" lon="0.0504">
        <ele>958.3</ele>
        <time>2016-07-31T09:38:06Z</time>
      </trkpt>
      <trkpt lat="42.43522" lon="0.05038">
        <ele>958.4</ele>
        <time>2016-07-31T09:38:08Z</time>
      </trkpt>
      <trkpt lat="42.43518" lon="0.05036">
        <ele>958.5</ele>
        <time>2016-07-31T09:38:10Z</time>
      </trkpt>
      <trkpt lat="42.43515" lon="0.05034">
        <ele>958.6</ele>
        <time>2016-07-31T09:38:12Z</time>
      </trkpt>
      <trkpt lat="42.43511" lon="0.05032">
        <ele>958.6</ele>
        <time>2016-07-31T09:38:14Z</time>
      </trkpt>
      <trkpt lat="42.43507" lon="0.0503">
        <ele>958.8</ele>
        <time>2016-07-31T09:38:16Z</time>
      </trkpt>
      <trkpt lat="42.43503" lon="0.05028">
        <ele>959</ele>
        <time>2016-07-31T09:38:18Z</time>
      </trkpt>
      <trkpt lat="42.435" lon="0.05026">
        <ele>959.3</ele>
        <time>2016-07-31T09:38:20Z</time>
      </trkpt>
      <trkpt lat="42.43497" lon="0.05023">
        <ele>959.6</ele>
        <time>2016-07-31T09:38:22Z</time>
      </trkpt>
      <trkpt lat="42.43493" lon="0.05021">
        <ele>959.8</ele>
        <time>2016-07-31T09:38:24Z</time>
      </trkpt>
      <trkpt lat="42.4349" lon="0.05019">
        <ele>960.1</ele>
        <time>2016-07-31T09:38:26Z</time>
      </trkpt>
      <trkpt lat="42.43487" lon="0.05017">
        <ele>960.4</ele>
        <time>2016-07-31T09:38:28Z</time>
      </trkpt>
      <trkpt lat="42.43484" lon="0.05014">
        <ele>960.8</ele>
        <time>2016-07-31T09:38:30Z</time>
      </trkpt>
      <trkpt lat="42.43481" lon="0.05012">
        <ele>961.2</ele>
        <time>2016-07-31T09:38:32Z</time>
      </trkpt>
      <trkpt lat="42.43478" lon="0.05009">
        <ele>961.5</ele>
        <time>2016-07-31T09:38:34Z</time>
      </trkpt>
      <trkpt lat="42.43475" lon="0.05007">
        <ele>961.9</ele>
        <time>2016-07-31T09:38:36Z</time>
      </trkpt>
      <trkpt lat="42.43473" lon="0.05005">
        <ele>962.2</ele>
        <time>2016-07-31T09:38:38Z</time>
      </trkpt>
      <trkpt lat="42.4347" lon="0.05003">
        <ele>962.5</ele>
        <time>2016-07-31T09:38:40Z</time>
      </trkpt>
      <trkpt lat="42.43468" lon="0.05001">
        <ele>962.8</ele>
        <time>2016-07-31T09:38:42Z</time>
      </trkpt>
      <trkpt lat="42.43464" lon="0.04999">
        <ele>963.1</ele>
        <time>2016-07-31T09:38:44Z</time>
      </trkpt>
      <trkpt lat="42.43462" lon="0.04996">
        <ele>963.6</ele>
        <time>2016-07-31T09:38:46Z</time>
      </trkpt>
      <trkpt lat="42.43459" lon="0.04993">
        <ele>964.2</ele>
        <time>2016-07-31T09:38:48Z</time>
      </trkpt>
      <trkpt lat="42.43456" lon="0.04991">
        <ele>964.6</ele>
        <time>2016-07-31T09:38:50Z</time>
      </trkpt>
      <trkpt lat="42.43454" lon="0.0499">
        <ele>964.7</ele>
        <time>2016-07-31T09:38:52Z</time>
      </trkpt>
      <trkpt lat="42.43451" lon="0.04988">
        <ele>964.9</ele>
        <time>2016-07-31T09:38:54Z</time>
      </trkpt>
      <trkpt lat="42.43448" lon="0.04986">
        <ele>965.3</ele>
        <time>2016-07-31T09:38:56Z</time>
      </trkpt>
      <trkpt lat="42.43445" lon="0.04984">
        <ele>965.6</ele>
        <time>2016-07-31T09:38:58Z</time>
      </trkpt>
      <trkpt lat="42.43442" lon="0.04981">
        <ele>966</ele>
        <time>2016-07-31T09:39:00Z</time>
      </trkpt>
      <trkpt lat="42.43439" lon="0.04978">
        <ele>966.5</ele>
        <time>2016-07-31T09:39:02Z</time>
      </trkpt>
      <trkpt lat="42.43435" lon="0.04976">
        <ele>966.7</ele>
        <time>2016-07-31T09:39:04Z</time>
      </trkpt>
      <trkpt lat="42.43432" lon="0.04975">
        <ele>966.8</ele>
        <time>2016-07-31T09:39:06Z</time>
      </trkpt>
      <trkpt lat="42.43429" lon="0.04972">
        <ele>967.2</ele>
        <time>2016-07-31T09:39:08Z</time>
      </trkpt>
      <trkpt lat="42.43426" lon="0.0497">
        <ele>967.6</ele>
        <time>2016-07-31T09:39:10Z</time>
      </trkpt>
      <trkpt lat="42.43423" lon="0.04968">
        <ele>967.9</ele>
        <time>2016-07-31T09:39:12Z</time>
      </trkpt>
      <trkpt lat="42.4342" lon="0.04965">
        <ele>968.2</ele>
        <time>2016-07-31T09:39:14Z</time>
      </trkpt>
      <trkpt lat="42.43417" lon="0.04963">
        <ele>968.5</ele>
        <time>2016-07-31T09:39:16Z</time>
      </trkpt>
      <trkpt lat="42.43414" lon="0.04961">
        <ele>968.8</ele>
        <time>2016-07-31T09:39:18Z</time>
      </trkpt>
      <trkpt lat="42.43412" lon="0.04959">
        <ele>969.3</ele>
        <time>2016-07-31T09:39:20Z</time>
      </trkpt>
      <trkpt lat="42.43409" lon="0.04957">
        <ele>969.5</ele>
        <time>2016-07-31T09:39:22Z</time>
      </trkpt>
      <trkpt lat="42.43406" lon="0.04955">
        <ele>969.6</ele>
        <time>2016-07-31T09:39:24Z</time>
      </trkpt>
      <trkpt lat="42.43403" lon="0.04952">
        <ele>969.9</ele>
        <time>2016-07-31T09:39:26Z</time>
      </trkpt>
      <trkpt lat="42.434" lon="0.04949">
        <ele>970.3</ele>
        <time>2016-07-31T09:39:28Z</time>
      </trkpt>
      <trkpt lat="42.43397" lon="0.04947">
        <ele>970.6</ele>
        <time>2016-07-31T09:39:30Z</time>
      </trkpt>
      <trkpt lat="42.43394" lon="0.04944">
        <ele>971</ele>
        <time>2016-07-31T09:39:32Z</time>
      </trkpt>
      <trkpt lat="42.43391" lon="0.04941">
        <ele>971.3</ele>
        <time>2016-07-31T09:39:34Z</time>
      </trkpt>
      <trkpt lat="42.43388" lon="0.04938">
        <ele>971.7</ele>
        <time>2016-07-31T09:39:36Z</time>
      </trkpt>
      <trkpt lat="42.43385" lon="0.04935">
        <ele>972</ele>
        <time>2016-07-31T09:39:38Z</time>
      </trkpt>
      <trkpt lat="42.43382" lon="0.04933">
        <ele>972.3</ele>
        <time>2016-07-31T09:39:40Z</time>
      </trkpt>
      <trkpt lat="42.43378" lon="0.0493">
        <ele>972.5</ele>
        <time>2016-07-31T09:39:42Z</time>
      </trkpt>
      <trkpt lat="42.43375" lon="0.04928">
        <ele>972.7</ele>
        <time>2016-07-31T09:39:44Z</time>
      </trkpt>
      <trkpt lat="42.43372" lon="0.04926">
        <ele>972.5</ele>
        <time>2016-07-31T09:39:46Z</time>
      </trkpt>
      <trkpt lat="42.43369" lon="0.04924">
        <ele>972.4</ele>
        <time>2016-07-31T09:39:48Z</time>
      </trkpt>
      <trkpt lat="42.43365" lon="0.04922">
        <ele>972.2</ele>
        <time>2016-07-31T09:39:50Z</time>
      </trkpt>
      <trkpt lat="42.43362" lon="0.0492">
        <ele>971.9</ele>
        <time>2016-07-31T09:39:52Z</time>
      </trkpt>
      <trkpt lat="42.43359" lon="0.04919">
        <ele>971.7</ele>
        <time>2016-07-31T09:39:54Z</time>
      </trkpt>
      <trkpt lat="42.43355" lon="0.04916">
        <ele>971.5</ele>
        <time>2016-07-31T09:39:56Z</time>
      </trkpt>
      <trkpt lat="42.43351" lon="0.04915">
        <ele>971.2</ele>
        <time>2016-07-31T09:39:58Z</time>
      </trkpt>
      <trkpt lat="42.43348" lon="0.04913">
        <ele>970.9</ele>
        <time>2016-07-31T09:40:00Z</time>
      </trkpt>
      <trkpt lat="42.43345" lon="0.04911">
        <ele>970.6</ele>
        <time>2016-07-31T09:40:02Z</time>
      </trkpt>
      <trkpt lat="42.43341" lon="0.04909">
        <ele>970.3</ele>
        <time>2016-07-31T09:40:04Z</time>
      </trkpt>
      <trkpt lat="42.43337" lon="0.04907">
        <ele>970</ele>
        <time>2016-07-31T09:40:06Z</time>
      </trkpt>
      <trkpt lat="42.43334" lon="0.04905">
        <ele>969.8</ele>
        <time>2016-07-31T09:40:08Z</time>
      </trkpt>
      <trkpt lat="42.4333" lon="0.04903">
        <ele>969.5</ele>
        <time>2016-07-31T09:40:10Z</time>
      </trkpt>
      <trkpt lat="42.43326" lon="0.049">
        <ele>969.2</ele>
        <time>2016-07-31T09:40:12Z</time>
      </trkpt>
      <trkpt lat="42.43323" lon="0.04898">
        <ele>969.1</ele>
        <time>2016-07-31T09:40:14Z</time>
      </trkpt>
      <trkpt lat="42.4332" lon="0.04895">
        <ele>969.1</ele>
        <time>2016-07-31T09:40:16Z</time>
      </trkpt>
      <trkpt lat="42.43317" lon="0.04891">
        <ele>969.2</ele>
        <time>2016-07-31T09:40:18Z</time>
      </trkpt>
      <trkpt lat="42.43314" lon="0.04888">
        <ele>969.3</ele>
        <time>2016-07-31T09:40:20Z</time>
      </trkpt>
      <trkpt lat="42.43311" lon="0.04885">
        <ele>969.3</ele>
        <time>2016-07-31T09:40:22Z</time>
      </trkpt>
      <trkpt lat="42.43308" lon="0.04881">
        <ele>969.5</ele>
        <time>2016-07-31T09:40:24Z</time>
      </trkpt>
      <trkpt lat="42.43306" lon="0.04877">
        <ele>969.7</ele>
        <time>2016-07-31T09:40:26Z</time>
      </trkpt>
      <trkpt lat="42.43303" lon="0.04874">
        <ele>969.8</ele>
        <time>2016-07-31T09:40:28Z</time>
      </trkpt>
      <trkpt lat="42.433" lon="0.0487">
        <ele>970</ele>
        <time>2016-07-31T09:40:30Z</time>
      </trkpt>
      <trkpt lat="42.43297" lon="0.04866">
        <ele>970.4</ele>
        <time>2016-07-31T09:40:32Z</time>
      </trkpt>
      <trkpt lat="42.43294" lon="0.04862">
        <ele>970.7</ele>
        <time>2016-07-31T09:40:34Z</time>
      </trkpt>
      <trkpt lat="42.43291" lon="0.04858">
        <ele>970.9</ele>
        <time>2016-07-31T09:40:36Z</time>
      </trkpt>
      <trkpt lat="42.43288" lon="0.04855">
        <ele>971.4</ele>
        <time>2016-07-31T09:40:38Z</time>
      </trkpt>
      <trkpt lat="42.43284" lon="0.04851">
        <ele>971.9</ele>
        <time>2016-07-31T09:40:40Z</time>
      </trkpt>
      <trkpt lat="42.43281" lon="0.04847">
        <ele>972.6</ele>
        <time>2016-07-31T09:40:42Z</time>
      </trkpt>
      <trkpt lat="42.4328" lon="0.04842">
        <ele>973.6</ele>
        <time>2016-07-31T09:40:44Z</time>
      </trkpt>
      <trkpt lat="42.43281" lon="0.04837">
        <ele>974.8</ele>
        <time>2016-07-31T09:40:46Z</time>
      </trkpt>
      <trkpt lat="42.43285" lon="0.04835">
        <ele>975.7</ele>
        <time>2016-07-31T09:40:48Z</time>
      </trkpt>
      <trkpt lat="42.4329" lon="0.04837">
        <ele>975.8</ele>
        <time>2016-07-31T09:40:50Z</time>
      </trkpt>
      <trkpt lat="42.43293" lon="0.04841">
        <ele>975.5</ele>
        <time>2016-07-31T09:40:52Z</time>
      </trkpt>
      <trkpt lat="42.43297" lon="0.04845">
        <ele>975.2</ele>
        <time>2016-07-31T09:40:54Z</time>
      </trkpt>
      <trkpt lat="42.433" lon="0.0485">
        <ele>975</ele>
        <time>2016-07-31T09:40:56Z</time>
      </trkpt>
      <trkpt lat="42.43304" lon="0.04853">
        <ele>974.9</ele>
        <time>2016-07-31T09:40:58Z</time>
      </trkpt>
      <trkpt lat="42.43308" lon="0.04857">
        <ele>974.9</ele>
        <time>2016-07-31T09:41:00Z</time>
      </trkpt>
      <trkpt lat="42.43312" lon="0.04861">
        <ele>974.9</ele>
        <time>2016-07-31T09:41:02Z</time>
      </trkpt>
      <trkpt lat="42.43315" lon="0.04864">
        <ele>974.9</ele>
        <time>2016-07-31T09:41:04Z</time>
      </trkpt>
      <trkpt lat="42.43318" lon="0.04866">
        <ele>975.1</ele>
        <time>2016-07-31T09:41:06Z</time>
      </trkpt>
      <trkpt lat="42.43321" lon="0.04869">
        <ele>975.3</ele>
        <time>2016-07-31T09:41:09Z</time>
      </trkpt>
      <trkpt lat="42.43325" lon="0.0487">
        <ele>975.6</ele>
        <time>2016-07-31T09:41:11Z</time>
      </trkpt>
      <trkpt lat="42.43328" lon="0.04872">
        <ele>975.8</ele>
        <time>2016-07-31T09:41:13Z</time>
      </trkpt>
      <trkpt lat="42.43331" lon="0.04874">
        <ele>976.2</ele>
        <time>2016-07-31T09:41:15Z</time>
      </trkpt>
      <trkpt lat="42.43334" lon="0.04875">
        <ele>976.6</ele>
        <time>2016-07-31T09:41:17Z</time>
      </trkpt>
      <trkpt lat="42.43337" lon="0.04876">
        <ele>977.2</ele>
        <time>2016-07-31T09:41:19Z</time>
      </trkpt>
      <trkpt lat="42.43341" lon="0.04877">
        <ele>977.8</ele>
        <time>2016-07-31T09:41:21Z</time>
      </trkpt>
      <trkpt lat="42.43345" lon="0.04877">
        <ele>978.6</ele>
        <time>2016-07-31T09:41:23Z</time>
      </trkpt>
      <trkpt lat="42.43348" lon="0.04876">
        <ele>979.6</ele>
        <time>2016-07-31T09:41:25Z</time>
      </trkpt>
      <trkpt lat="42.43352" lon="0.04876">
        <ele>980.5</ele>
        <time>2016-07-31T09:41:27Z</time>
      </trkpt>
      <trkpt lat="42.43356" lon="0.04875">
        <ele>981.6</ele>
        <time>2016-07-31T09:41:29Z</time>
      </trkpt>
      <trkpt lat="42.43359" lon="0.04874">
        <ele>982.6</ele>
        <time>2016-07-31T09:41:31Z</time>
      </trkpt>
      <trkpt lat="42.43363" lon="0.04873">
        <ele>983.6</ele>
        <time>2016-07-31T09:41:33Z</time>
      </trkpt>
      <trkpt lat="42.43367" lon="0.04873">
        <ele>984.6</ele>
        <time>2016-07-31T09:41:35Z</time>
      </trkpt>
      <trkpt lat="42.4337" lon="0.04873">
        <ele>985.5</ele>
        <time>2016-07-31T09:41:37Z</time>
      </trkpt>
      <trkpt lat="42.43374" lon="0.04873">
        <ele>986.3</ele>
        <time>2016-07-31T09:41:39Z</time>
      </trkpt>
      <trkpt lat="42.43378" lon="0.04873">
        <ele>986.8</ele>
        <time>2016-07-31T09:41:41Z</time>
      </trkpt>
      <trkpt lat="42.43381" lon="0.04874">
        <ele>987.1</ele>
        <time>2016-07-31T09:41:43Z</time>
      </trkpt>
      <trkpt lat="42.43385" lon="0.04874">
        <ele>987.4</ele>
        <time>2016-07-31T09:41:45Z</time>
      </trkpt>
      <trkpt lat="42.43388" lon="0.04874">
        <ele>987.8</ele>
        <time>2016-07-31T09:41:47Z</time>
      </trkpt>
      <trkpt lat="42.43392" lon="0.04874">
        <ele>988.2</ele>
        <time>2016-07-31T09:41:49Z</time>
      </trkpt>
      <trkpt lat="42.43396" lon="0.04875">
        <ele>988.5</ele>
        <time>2016-07-31T09:41:51Z</time>
      </trkpt>
      <trkpt lat="42.434" lon="0.04876">
        <ele>988.8</ele>
        <time>2016-07-31T09:41:53Z</time>
      </trkpt>
      <trkpt lat="42.43403" lon="0.04876">
        <ele>989</ele>
        <time>2016-07-31T09:41:55Z</time>
      </trkpt>
      <trkpt lat="42.43406" lon="0.04877">
        <ele>989.2</ele>
        <time>2016-07-31T09:41:57Z</time>
      </trkpt>
      <trkpt lat="42.4341" lon="0.04878">
        <ele>989.5</ele>
        <time>2016-07-31T09:41:59Z</time>
      </trkpt>
      <trkpt lat="42.43414" lon="0.04879">
        <ele>989.7</ele>
        <time>2016-07-31T09:42:01Z</time>
      </trkpt>
      <trkpt lat="42.43418" lon="0.04879">
        <ele>990.1</ele>
        <time>2016-07-31T09:42:03Z</time>
      </trkpt>
      <trkpt lat="42.43422" lon="0.0488">
        <ele>990.5</ele>
        <time>2016-07-31T09:42:05Z</time>
      </trkpt>
      <trkpt lat="42.43425" lon="0.0488">
        <ele>990.8</ele>
        <time>2016-07-31T09:42:07Z</time>
      </trkpt>
      <trkpt lat="42.43429" lon="0.0488">
        <ele>991.3</ele>
        <time>2016-07-31T09:42:09Z</time>
      </trkpt>
      <trkpt lat="42.43432" lon="0.0488">
        <ele>991.6</ele>
        <time>2016-07-31T09:42:11Z</time>
      </trkpt>
      <trkpt lat="42.43436" lon="0.04882">
        <ele>991.6</ele>
        <time>2016-07-31T09:42:13Z</time>
      </trkpt>
      <trkpt lat="42.43439" lon="0.04881">
        <ele>992</ele>
        <time>2016-07-31T09:42:15Z</time>
      </trkpt>
      <trkpt lat="42.43442" lon="0.04881">
        <ele>992.5</ele>
        <time>2016-07-31T09:42:17Z</time>
      </trkpt>
      <trkpt lat="42.43446" lon="0.04881">
        <ele>992.9</ele>
        <time>2016-07-31T09:42:19Z</time>
      </trkpt>
      <trkpt lat="42.4345" lon="0.04882">
        <ele>993.3</ele>
        <time>2016-07-31T09:42:21Z</time>
      </trkpt>
      <trkpt lat="42.43454" lon="0.04882">
        <ele>993.7</ele>
        <time>2016-07-31T09:42:23Z</time>
      </trkpt>
      <trkpt lat="42.43458" lon="0.04883">
        <ele>994.1</ele>
        <time>2016-07-31T09:42:25Z</time>
      </trkpt>
      <trkpt lat="42.43462" lon="0.04883">
        <ele>994.2</ele>
        <time>2016-07-31T09:42:27Z</time>
      </trkpt>
      <trkpt lat="42.43466" lon="0.04883">
        <ele>994.5</ele>
        <time>2016-07-31T09:42:29Z</time>
      </trkpt>
      <trkpt lat="42.43469" lon="0.04884">
        <ele>994.7</ele>
        <time>2016-07-31T09:42:31Z</time>
      </trkpt>
      <trkpt lat="42.43473" lon="0.04884">
        <ele>994.9</ele>
        <time>2016-07-31T09:42:33Z</time>
      </trkpt>
      <trkpt lat="42.43477" lon="0.04885">
        <ele>995</ele>
        <time>2016-07-31T09:42:35Z</time>
      </trkpt>
      <trkpt lat="42.4348" lon="0.04885">
        <ele>995.1</ele>
        <time>2016-07-31T09:42:37Z</time>
      </trkpt>
      <trkpt lat="42.43484" lon="0.04886">
        <ele>995.3</ele>
        <time>2016-07-31T09:42:39Z</time>
      </trkpt>
      <trkpt lat="42.43488" lon="0.04887">
        <ele>995.4</ele>
        <time>2016-07-31T09:42:41Z</time>
      </trkpt>
      <trkpt lat="42.43492" lon="0.04887">
        <ele>995.5</ele>
        <time>2016-07-31T09:42:43Z</time>
      </trkpt>
      <trkpt lat="42.43496" lon="0.04888">
        <ele>995.7</ele>
        <time>2016-07-31T09:42:45Z</time>
      </trkpt>
      <trkpt lat="42.435" lon="0.04889">
        <ele>995.8</ele>
        <time>2016-07-31T09:42:47Z</time>
      </trkpt>
      <trkpt lat="42.43503" lon="0.04889">
        <ele>995.9</ele>
        <time>2016-07-31T09:42:49Z</time>
      </trkpt>
      <trkpt lat="42.43507" lon="0.0489">
        <ele>996</ele>
        <time>2016-07-31T09:42:51Z</time>
      </trkpt>
      <trkpt lat="42.43512" lon="0.04891">
        <ele>996.2</ele>
        <time>2016-07-31T09:42:53Z</time>
      </trkpt>
      <trkpt lat="42.43515" lon="0.04891">
        <ele>996.4</ele>
        <time>2016-07-31T09:42:55Z</time>
      </trkpt>
      <trkpt lat="42.43519" lon="0.04892">
        <ele>996.6</ele>
        <time>2016-07-31T09:42:57Z</time>
      </trkpt>
      <trkpt lat="42.43522" lon="0.04892">
        <ele>996.8</ele>
        <time>2016-07-31T09:42:59Z</time>
      </trkpt>
      <trkpt lat="42.43526" lon="0.04892">
        <ele>997</ele>
        <time>2016-07-31T09:43:01Z</time>
      </trkpt>
      <trkpt lat="42.43529" lon="0.04893">
        <ele>997.2</ele>
        <time>2016-07-31T09:43:03Z</time>
      </trkpt>
      <trkpt lat="42.43532" lon="0.04893">
        <ele>997.4</ele>
        <time>2016-07-31T09:43:05Z</time>
      </trkpt>
      <trkpt lat="42.43536" lon="0.04893">
        <ele>997.6</ele>
        <time>2016-07-31T09:43:07Z</time>
      </trkpt>
      <trkpt lat="42.4354" lon="0.04894">
        <ele>997.8</ele>
        <time>2016-07-31T09:43:09Z</time>
      </trkpt>
      <trkpt lat="42.43543" lon="0.04894">
        <ele>997.5</ele>
        <time>2016-07-31T09:43:11Z</time>
      </trkpt>
      <trkpt lat="42.43547" lon="0.04894">
        <ele>996.7</ele>
        <time>2016-07-31T09:43:13Z</time>
      </trkpt>
      <trkpt lat="42.4355" lon="0.04895">
        <ele>995.8</ele>
        <time>2016-07-31T09:43:15Z</time>
      </trkpt>
      <trkpt lat="42.43554" lon="0.04896">
        <ele>994.9</ele>
        <time>2016-07-31T09:43:17Z</time>
      </trkpt>
      <trkpt lat="42.43557" lon="0.04896">
        <ele>994</ele>
        <time>2016-07-31T09:43:19Z</time>
      </trkpt>
      <trkpt lat="42.43561" lon="0.04897">
        <ele>993.1</ele>
        <time>2016-07-31T09:43:21Z</time>
      </trkpt>
      <trkpt lat="42.43564" lon="0.04897">
        <ele>992.4</ele>
        <time>2016-07-31T09:43:23Z</time>
      </trkpt>
      <trkpt lat="42.43568" lon="0.04895">
        <ele>991.8</ele>
        <time>2016-07-31T09:43:25Z</time>
      </trkpt>
      <trkpt lat="42.4357" lon="0.04892">
        <ele>991.7</ele>
        <time>2016-07-31T09:43:27Z</time>
      </trkpt>
      <trkpt lat="42.43571" lon="0.04888">
        <ele>991.8</ele>
        <time>2016-07-31T09:43:29Z</time>
      </trkpt>
      <trkpt lat="42.4357" lon="0.04883">
        <ele>992.7</ele>
        <time>2016-07-31T09:43:32Z</time>
      </trkpt>
      <trkpt lat="42.43566" lon="0.04882">
        <ele>993.9</ele>
        <time>2016-07-31T09:43:34Z</time>
      </trkpt>
      <trkpt lat="42.43561" lon="0.04883">
        <ele>995.1</ele>
        <time>2016-07-31T09:43:36Z</time>
      </trkpt>
      <trkpt lat="42.43557" lon="0.04881">
        <ele>996.4</ele>
        <time>2016-07-31T09:43:38Z</time>
      </trkpt>
      <trkpt lat="42.43553" lon="0.04879">
        <ele>997.9</ele>
        <time>2016-07-31T09:43:40Z</time>
      </trkpt>
      <trkpt lat="42.43549" lon="0.04877">
        <ele>999.3</ele>
        <time>2016-07-31T09:43:42Z</time>
      </trkpt>
      <trkpt lat="42.43545" lon="0.04875">
        <ele>1000.9</ele>
        <time>2016-07-31T09:43:44Z</time>
      </trkpt>
      <trkpt lat="42.43542" lon="0.04874">
        <ele>1001.9</ele>
        <time>2016-07-31T09:43:46Z</time>
      </trkpt>
      <trkpt lat="42.43538" lon="0.04872">
        <ele>1001.6</ele>
        <time>2016-07-31T09:43:48Z</time>
      </trkpt>
      <trkpt lat="42.43534" lon="0.0487">
        <ele>1001.4</ele>
        <time>2016-07-31T09:43:50Z</time>
      </trkpt>
      <trkpt lat="42.4353" lon="0.04868">
        <ele>1001.2</ele>
        <time>2016-07-31T09:43:52Z</time>
      </trkpt>
      <trkpt lat="42.43527" lon="0.04866">
        <ele>1001</ele>
        <time>2016-07-31T09:43:54Z</time>
      </trkpt>
      <trkpt lat="42.43524" lon="0.04864">
        <ele>1000.9</ele>
        <time>2016-07-31T09:43:56Z</time>
      </trkpt>
      <trkpt lat="42.4352" lon="0.04862">
        <ele>1000.8</ele>
        <time>2016-07-31T09:43:58Z</time>
      </trkpt>
      <trkpt lat="42.43517" lon="0.0486">
        <ele>1000.8</ele>
        <time>2016-07-31T09:44:00Z</time>
      </trkpt>
      <trkpt lat="42.43514" lon="0.04858">
        <ele>1000.8</ele>
        <time>2016-07-31T09:44:02Z</time>
      </trkpt>
      <trkpt lat="42.43512" lon="0.04856">
        <ele>1000.9</ele>
        <time>2016-07-31T09:44:04Z</time>
      </trkpt>
      <trkpt lat="42.43509" lon="0.04854">
        <ele>1001</ele>
        <time>2016-07-31T09:44:06Z</time>
      </trkpt>
      <trkpt lat="42.43506" lon="0.04851">
        <ele>1001.1</ele>
        <time>2016-07-31T09:44:08Z</time>
      </trkpt>
      <trkpt lat="42.43504" lon="0.04848">
        <ele>1001.4</ele>
        <time>2016-07-31T09:44:10Z</time>
      </trkpt>
      <trkpt lat="42.435" lon="0.04845">
        <ele>1001.7</ele>
        <time>2016-07-31T09:44:12Z</time>
      </trkpt>
      <trkpt lat="42.43497" lon="0.04842">
        <ele>1002.1</ele>
        <time>2016-07-31T09:44:14Z</time>
      </trkpt>
      <trkpt lat="42.43493" lon="0.04839">
        <ele>1002.5</ele>
        <time>2016-07-31T09:44:16Z</time>
      </trkpt>
      <trkpt lat="42.4349" lon="0.04836">
        <ele>1003</ele>
        <time>2016-07-31T09:44:18Z</time>
      </trkpt>
      <trkpt lat="42.43487" lon="0.04833">
        <ele>1003.5</ele>
        <time>2016-07-31T09:44:20Z</time>
      </trkpt>
      <trkpt lat="42.43484" lon="0.04829">
        <ele>1004.2</ele>
        <time>2016-07-31T09:44:22Z</time>
      </trkpt>
      <trkpt lat="42.43482" lon="0.04825">
        <ele>1004.9</ele>
        <time>2016-07-31T09:44:24Z</time>
      </trkpt>
      <trkpt lat="42.4348" lon="0.04821">
        <ele>1005.6</ele>
        <time>2016-07-31T09:44:26Z</time>
      </trkpt>
      <trkpt lat="42.43479" lon="0.04817">
        <ele>1006.4</ele>
        <time>2016-07-31T09:44:28Z</time>
      </trkpt>
      <trkpt lat="42.43477" lon="0.04813">
        <ele>1007.2</ele>
        <time>2016-07-31T09:44:30Z</time>
      </trkpt>
      <trkpt lat="42.43475" lon="0.0481">
        <ele>1008.1</ele>
        <time>2016-07-31T09:44:32Z</time>
      </trkpt>
      <trkpt lat="42.43472" lon="0.04806">
        <ele>1008.9</ele>
        <time>2016-07-31T09:44:34Z</time>
      </trkpt>
      <trkpt lat="42.4347" lon="0.04804">
        <ele>1009.8</ele>
        <time>2016-07-31T09:44:36Z</time>
      </trkpt>
      <trkpt lat="42.43468" lon="0.04801">
        <ele>1010.6</ele>
        <time>2016-07-31T09:44:38Z</time>
      </trkpt>
      <trkpt lat="42.43466" lon="0.04798">
        <ele>1011.5</ele>
        <time>2016-07-31T09:44:40Z</time>
      </trkpt>
      <trkpt lat="42.43463" lon="0.04796">
        <ele>1012.3</ele>
        <time>2016-07-31T09:44:42Z</time>
      </trkpt>
      <trkpt lat="42.4346" lon="0.04793">
        <ele>1013.5</ele>
        <time>2016-07-31T09:44:45Z</time>
      </trkpt>
      <trkpt lat="42.43458" lon="0.04791">
        <ele>1013.9</ele>
        <time>2016-07-31T09:44:47Z</time>
      </trkpt>
      <trkpt lat="42.43454" lon="0.04788">
        <ele>1013.7</ele>
        <time>2016-07-31T09:44:50Z</time>
      </trkpt>
      <trkpt lat="42.4345" lon="0.04786">
        <ele>1013.4</ele>
        <time>2016-07-31T09:44:53Z</time>
      </trkpt>
      <trkpt lat="42.43448" lon="0.04785">
        <ele>1013.3</ele>
        <time>2016-07-31T09:44:55Z</time>
      </trkpt>
      <trkpt lat="42.43445" lon="0.04782">
        <ele>1013.2</ele>
        <time>2016-07-31T09:44:57Z</time>
      </trkpt>
      <trkpt lat="42.43442" lon="0.0478">
        <ele>1013.1</ele>
        <time>2016-07-31T09:44:59Z</time>
      </trkpt>
      <trkpt lat="42.4344" lon="0.04778">
        <ele>1013</ele>
        <time>2016-07-31T09:45:01Z</time>
      </trkpt>
      <trkpt lat="42.43437" lon="0.04775">
        <ele>1013</ele>
        <time>2016-07-31T09:45:03Z</time>
      </trkpt>
      <trkpt lat="42.43434" lon="0.04773">
        <ele>1013</ele>
        <time>2016-07-31T09:45:05Z</time>
      </trkpt>
      <trkpt lat="42.43432" lon="0.04771">
        <ele>1013</ele>
        <time>2016-07-31T09:45:07Z</time>
      </trkpt>
      <trkpt lat="42.43429" lon="0.04768">
        <ele>1013.1</ele>
        <time>2016-07-31T09:45:09Z</time>
      </trkpt>
      <trkpt lat="42.43426" lon="0.04765">
        <ele>1013.2</ele>
        <time>2016-07-31T09:45:11Z</time>
      </trkpt>
      <trkpt lat="42.43423" lon="0.04762">
        <ele>1013.4</ele>
        <time>2016-07-31T09:45:13Z</time>
      </trkpt>
      <trkpt lat="42.43421" lon="0.04759">
        <ele>1013.6</ele>
        <time>2016-07-31T09:45:15Z</time>
      </trkpt>
      <trkpt lat="42.43419" lon="0.04757">
        <ele>1013.8</ele>
        <time>2016-07-31T09:45:17Z</time>
      </trkpt>
      <trkpt lat="42.43416" lon="0.04754">
        <ele>1014</ele>
        <time>2016-07-31T09:45:19Z</time>
      </trkpt>
      <trkpt lat="42.43413" lon="0.04751">
        <ele>1014.2</ele>
        <time>2016-07-31T09:45:21Z</time>
      </trkpt>
      <trkpt lat="42.4341" lon="0.04749">
        <ele>1014.5</ele>
        <time>2016-07-31T09:45:23Z</time>
      </trkpt>
      <trkpt lat="42.43408" lon="0.04747">
        <ele>1014.8</ele>
        <time>2016-07-31T09:45:25Z</time>
      </trkpt>
      <trkpt lat="42.43405" lon="0.04745">
        <ele>1015</ele>
        <time>2016-07-31T09:45:27Z</time>
      </trkpt>
      <trkpt lat="42.43402" lon="0.04743">
        <ele>1015.3</ele>
        <time>2016-07-31T09:45:29Z</time>
      </trkpt>
      <trkpt lat="42.434" lon="0.04739">
        <ele>1015.7</ele>
        <time>2016-07-31T09:45:31Z</time>
      </trkpt>
      <trkpt lat="42.43398" lon="0.04736">
        <ele>1016.2</ele>
        <time>2016-07-31T09:45:33Z</time>
      </trkpt>
      <trkpt lat="42.43396" lon="0.04733">
        <ele>1016.8</ele>
        <time>2016-07-31T09:45:35Z</time>
      </trkpt>
      <trkpt lat="42.43394" lon="0.04729">
        <ele>1017.4</ele>
        <time>2016-07-31T09:45:37Z</time>
      </trkpt>
      <trkpt lat="42.43392" lon="0.04725">
        <ele>1018.1</ele>
        <time>2016-07-31T09:45:39Z</time>
      </trkpt>
      <trkpt lat="42.4339" lon="0.04721">
        <ele>1018.9</ele>
        <time>2016-07-31T09:45:41Z</time>
      </trkpt>
      <trkpt lat="42.43388" lon="0.04718">
        <ele>1019.6</ele>
        <time>2016-07-31T09:45:43Z</time>
      </trkpt>
      <trkpt lat="42.43386" lon="0.04714">
        <ele>1020.3</ele>
        <time>2016-07-31T09:45:45Z</time>
      </trkpt>
      <trkpt lat="42.43384" lon="0.0471">
        <ele>1021.1</ele>
        <time>2016-07-31T09:45:47Z</time>
      </trkpt>
      <trkpt lat="42.43382" lon="0.04706">
        <ele>1021.7</ele>
        <time>2016-07-31T09:45:49Z</time>
      </trkpt>
      <trkpt lat="42.4338" lon="0.04702">
        <ele>1022</ele>
        <time>2016-07-31T09:45:51Z</time>
      </trkpt>
      <trkpt lat="42.43377" lon="0.04698">
        <ele>1022.4</ele>
        <time>2016-07-31T09:45:53Z</time>
      </trkpt>
      <trkpt lat="42.43375" lon="0.04694">
        <ele>1022.8</ele>
        <time>2016-07-31T09:45:55Z</time>
      </trkpt>
      <trkpt lat="42.43372" lon="0.04691">
        <ele>1022.5</ele>
        <time>2016-07-31T09:45:57Z</time>
      </trkpt>
      <trkpt lat="42.43369" lon="0.04689">
        <ele>1022.3</ele>
        <time>2016-07-31T09:45:59Z</time>
      </trkpt>
      <trkpt lat="42.43366" lon="0.04685">
        <ele>1022.2</ele>
        <time>2016-07-31T09:46:01Z</time>
      </trkpt>
      <trkpt lat="42.43363" lon="0.04682">
        <ele>1022</ele>
        <time>2016-07-31T09:46:03Z</time>
      </trkpt>
      <trkpt lat="42.4336" lon="0.04679">
        <ele>1021.9</ele>
        <time>2016-07-31T09:46:05Z</time>
      </trkpt>
      <trkpt lat="42.43357" lon="0.04676">
        <ele>1021.9</ele>
        <time>2016-07-31T09:46:07Z</time>
      </trkpt>
      <trkpt lat="42.43354" lon="0.04673">
        <ele>1021.8</ele>
        <time>2016-07-31T09:46:09Z</time>
      </trkpt>
      <trkpt lat="42.43351" lon="0.0467">
        <ele>1021.9</ele>
        <time>2016-07-31T09:46:11Z</time>
      </trkpt>
      <trkpt lat="42.43348" lon="0.04666">
        <ele>1022</ele>
        <time>2016-07-31T09:46:13Z</time>
      </trkpt>
      <trkpt lat="42.43346" lon="0.04663">
        <ele>1022.2</ele>
        <time>2016-07-31T09:46:15Z</time>
      </trkpt>
      <trkpt lat="42.43344" lon="0.0466">
        <ele>1022.5</ele>
        <time>2016-07-31T09:46:17Z</time>
      </trkpt>
      <trkpt lat="42.43342" lon="0.04657">
        <ele>1022.7</ele>
        <time>2016-07-31T09:46:19Z</time>
      </trkpt>
      <trkpt lat="42.43339" lon="0.04653">
        <ele>1023</ele>
        <time>2016-07-31T09:46:21Z</time>
      </trkpt>
      <trkpt lat="42.43337" lon="0.0465">
        <ele>1023.3</ele>
        <time>2016-07-31T09:46:23Z</time>
      </trkpt>
      <trkpt lat="42.43334" lon="0.04648">
        <ele>1023.5</ele>
        <time>2016-07-31T09:46:25Z</time>
      </trkpt>
      <trkpt lat="42.43332" lon="0.04645">
        <ele>1023.8</ele>
        <time>2016-07-31T09:46:27Z</time>
      </trkpt>
      <trkpt lat="42.4333" lon="0.04641">
        <ele>1024.3</ele>
        <time>2016-07-31T09:46:29Z</time>
      </trkpt>
      <trkpt lat="42.4333" lon="0.04637">
        <ele>1025.1</ele>
        <time>2016-07-31T09:46:31Z</time>
      </trkpt>
      <trkpt lat="42.43332" lon="0.04633">
        <ele>1025.8</ele>
        <time>2016-07-31T09:46:33Z</time>
      </trkpt>
      <trkpt lat="42.43335" lon="0.04631">
        <ele>1026.1</ele>
        <time>2016-07-31T09:46:35Z</time>
      </trkpt>
      <trkpt lat="42.43339" lon="0.04632">
        <ele>1026</ele>
        <time>2016-07-31T09:46:37Z</time>
      </trkpt>
      <trkpt lat="42.43343" lon="0.04634">
        <ele>1025.7</ele>
        <time>2016-07-31T09:46:39Z</time>
      </trkpt>
      <trkpt lat="42.43346" lon="0.04638">
        <ele>1025.3</ele>
        <time>2016-07-31T09:46:41Z</time>
      </trkpt>
      <trkpt lat="42.43349" lon="0.04641">
        <ele>1025</ele>
        <time>2016-07-31T09:46:43Z</time>
      </trkpt>
      <trkpt lat="42.43352" lon="0.04643">
        <ele>1024.9</ele>
        <time>2016-07-31T09:46:45Z</time>
      </trkpt>
      <trkpt lat="42.43356" lon="0.04644">
        <ele>1025</ele>
        <time>2016-07-31T09:46:47Z</time>
      </trkpt>
      <trkpt lat="42.43359" lon="0.04644">
        <ele>1025.1</ele>
        <time>2016-07-31T09:46:49Z</time>
      </trkpt>
      <trkpt lat="42.43362" lon="0.04643">
        <ele>1025.4</ele>
        <time>2016-07-31T09:46:51Z</time>
      </trkpt>
      <trkpt lat="42.43365" lon="0.04641">
        <ele>1025.7</ele>
        <time>2016-07-31T09:46:54Z</time>
      </trkpt>
      <trkpt lat="42.43365" lon="0.04636">
        <ele>1026.1</ele>
        <time>2016-07-31T09:46:56Z</time>
      </trkpt>
      <trkpt lat="42.43363" lon="0.04632">
        <ele>1026.4</ele>
        <time>2016-07-31T09:46:58Z</time>
      </trkpt>
      <trkpt lat="42.43361" lon="0.04628">
        <ele>1026.7</ele>
        <time>2016-07-31T09:47:00Z</time>
      </trkpt>
      <trkpt lat="42.43357" lon="0.04626">
        <ele>1026.9</ele>
        <time>2016-07-31T09:47:02Z</time>
      </trkpt>
      <trkpt lat="42.43353" lon="0.04624">
        <ele>1026.9</ele>
        <time>2016-07-31T09:47:04Z</time>
      </trkpt>
      <trkpt lat="42.4335" lon="0.04621">
        <ele>1026.8</ele>
        <time>2016-07-31T09:47:06Z</time>
      </trkpt>
      <trkpt lat="42.43347" lon="0.04619">
        <ele>1026.8</ele>
        <time>2016-07-31T09:47:08Z</time>
      </trkpt>
      <trkpt lat="42.43344" lon="0.04616">
        <ele>1026.7</ele>
        <time>2016-07-31T09:47:10Z</time>
      </trkpt>
      <trkpt lat="42.43341" lon="0.04613">
        <ele>1026.8</ele>
        <time>2016-07-31T09:47:12Z</time>
      </trkpt>
      <trkpt lat="42.43338" lon="0.0461">
        <ele>1026.9</ele>
        <time>2016-07-31T09:47:14Z</time>
      </trkpt>
      <trkpt lat="42.43335" lon="0.04607">
        <ele>1027</ele>
        <time>2016-07-31T09:47:16Z</time>
      </trkpt>
      <trkpt lat="42.43333" lon="0.04604">
        <ele>1027.2</ele>
        <time>2016-07-31T09:47:18Z</time>
      </trkpt>
      <trkpt lat="42.4333" lon="0.04601">
        <ele>1027.4</ele>
        <time>2016-07-31T09:47:20Z</time>
      </trkpt>
      <trkpt lat="42.43327" lon="0.04597">
        <ele>1027.7</ele>
        <time>2016-07-31T09:47:22Z</time>
      </trkpt>
      <trkpt lat="42.43325" lon="0.04594">
        <ele>1028.1</ele>
        <time>2016-07-31T09:47:24Z</time>
      </trkpt>
      <trkpt lat="42.43322" lon="0.0459">
        <ele>1028.5</ele>
        <time>2016-07-31T09:47:26Z</time>
      </trkpt>
      <trkpt lat="42.4332" lon="0.04587">
        <ele>1029</ele>
        <time>2016-07-31T09:47:28Z</time>
      </trkpt>
      <trkpt lat="42.43317" lon="0.04583">
        <ele>1029.6</ele>
        <time>2016-07-31T09:47:30Z</time>
      </trkpt>
      <trkpt lat="42.43314" lon="0.0458">
        <ele>1030.2</ele>
        <time>2016-07-31T09:47:32Z</time>
      </trkpt>
      <trkpt lat="42.4331" lon="0.04577">
        <ele>1030.9</ele>
        <time>2016-07-31T09:47:34Z</time>
      </trkpt>
      <trkpt lat="42.43307" lon="0.04575">
        <ele>1031.6</ele>
        <time>2016-07-31T09:47:36Z</time>
      </trkpt>
      <trkpt lat="42.43305" lon="0.04572">
        <ele>1032.4</ele>
        <time>2016-07-31T09:47:38Z</time>
      </trkpt>
      <trkpt lat="42.43302" lon="0.04568">
        <ele>1033.2</ele>
        <time>2016-07-31T09:47:40Z</time>
      </trkpt>
      <trkpt lat="42.433" lon="0.04565">
        <ele>1034.1</ele>
        <time>2016-07-31T09:47:42Z</time>
      </trkpt>
      <trkpt lat="42.43297" lon="0.04561">
        <ele>1035</ele>
        <time>2016-07-31T09:47:44Z</time>
      </trkpt>
      <trkpt lat="42.43294" lon="0.04558">
        <ele>1036.1</ele>
        <time>2016-07-31T09:47:46Z</time>
      </trkpt>
      <trkpt lat="42.43291" lon="0.04555">
        <ele>1037.2</ele>
        <time>2016-07-31T09:47:48Z</time>
      </trkpt>
      <trkpt lat="42.43288" lon="0.04551">
        <ele>1037.8</ele>
        <time>2016-07-31T09:47:50Z</time>
      </trkpt>
      <trkpt lat="42.43285" lon="0.04548">
        <ele>1038.4</ele>
        <time>2016-07-31T09:47:52Z</time>
      </trkpt>
      <trkpt lat="42.43282" lon="0.04545">
        <ele>1039</ele>
        <time>2016-07-31T09:47:54Z</time>
      </trkpt>
      <trkpt lat="42.43279" lon="0.04543">
        <ele>1039.5</ele>
        <time>2016-07-31T09:47:56Z</time>
      </trkpt>
      <trkpt lat="42.43276" lon="0.04541">
        <ele>1039.9</ele>
        <time>2016-07-31T09:47:58Z</time>
      </trkpt>
      <trkpt lat="42.43273" lon="0.04538">
        <ele>1039.9</ele>
        <time>2016-07-31T09:48:00Z</time>
      </trkpt>
      <trkpt lat="42.43269" lon="0.04535">
        <ele>1039.9</ele>
        <time>2016-07-31T09:48:02Z</time>
      </trkpt>
      <trkpt lat="42.43266" lon="0.04532">
        <ele>1040</ele>
        <time>2016-07-31T09:48:04Z</time>
      </trkpt>
      <trkpt lat="42.43262" lon="0.04529">
        <ele>1040.2</ele>
        <time>2016-07-31T09:48:06Z</time>
      </trkpt>
      <trkpt lat="42.43259" lon="0.04526">
        <ele>1040.3</ele>
        <time>2016-07-31T09:48:08Z</time>
      </trkpt>
      <trkpt lat="42.43256" lon="0.04523">
        <ele>1040.5</ele>
        <time>2016-07-31T09:48:10Z</time>
      </trkpt>
      <trkpt lat="42.43253" lon="0.04519">
        <ele>1040.7</ele>
        <time>2016-07-31T09:48:12Z</time>
      </trkpt>
      <trkpt lat="42.4325" lon="0.04516">
        <ele>1041</ele>
        <time>2016-07-31T09:48:14Z</time>
      </trkpt>
      <trkpt lat="42.43248" lon="0.04512">
        <ele>1041.3</ele>
        <time>2016-07-31T09:48:16Z</time>
      </trkpt>
      <trkpt lat="42.43245" lon="0.04508">
        <ele>1041.6</ele>
        <time>2016-07-31T09:48:18Z</time>
      </trkpt>
      <trkpt lat="42.43242" lon="0.04504">
        <ele>1042</ele>
        <time>2016-07-31T09:48:20Z</time>
      </trkpt>
      <trkpt lat="42.4324" lon="0.045">
        <ele>1042.5</ele>
        <time>2016-07-31T09:48:22Z</time>
      </trkpt>
      <trkpt lat="42.43238" lon="0.04496">
        <ele>1042.8</ele>
        <time>2016-07-31T09:48:24Z</time>
      </trkpt>
      <trkpt lat="42.43236" lon="0.04492">
        <ele>1043.1</ele>
        <time>2016-07-31T09:48:26Z</time>
      </trkpt>
      <trkpt lat="42.43235" lon="0.04489">
        <ele>1043.4</ele>
        <time>2016-07-31T09:48:28Z</time>
      </trkpt>
      <trkpt lat="42.43236" lon="0.04485">
        <ele>1043.3</ele>
        <time>2016-07-31T09:48:30Z</time>
      </trkpt>
      <trkpt lat="42.4324" lon="0.04484">
        <ele>1042.4</ele>
        <time>2016-07-31T09:48:32Z</time>
      </trkpt>
      <trkpt lat="42.43245" lon="0.04486">
        <ele>1041.6</ele>
        <time>2016-07-31T09:48:34Z</time>
      </trkpt>
      <trkpt lat="42.43248" lon="0.04488">
        <ele>1040.9</ele>
        <time>2016-07-31T09:48:36Z</time>
      </trkpt>
      <trkpt lat="42.43253" lon="0.04491">
        <ele>1040.1</ele>
        <time>2016-07-31T09:48:38Z</time>
      </trkpt>
      <trkpt lat="42.43256" lon="0.04495">
        <ele>1039.6</ele>
        <time>2016-07-31T09:48:40Z</time>
      </trkpt>
      <trkpt lat="42.43259" lon="0.04496">
        <ele>1039.1</ele>
        <time>2016-07-31T09:48:42Z</time>
      </trkpt>
      <trkpt lat="42.43265" lon="0.04502">
        <ele>1038.4</ele>
        <time>2016-07-31T09:54:17Z</time>
      </trkpt>
      <trkpt lat="42.43269" lon="0.04506">
        <ele>1038.1</ele>
        <time>2016-07-31T09:54:19Z</time>
      </trkpt>
      <trkpt lat="42.43272" lon="0.0451">
        <ele>1037.9</ele>
        <time>2016-07-31T09:54:21Z</time>
      </trkpt>
      <trkpt lat="42.43274" lon="0.04514">
        <ele>1037.9</ele>
        <time>2016-07-31T09:54:23Z</time>
      </trkpt>
      <trkpt lat="42.43275" lon="0.04519">
        <ele>1038.2</ele>
        <time>2016-07-31T09:54:30Z</time>
      </trkpt>
      <trkpt lat="42.43277" lon="0.04524">
        <ele>1038.4</ele>
        <time>2016-07-31T09:54:32Z</time>
      </trkpt>
      <trkpt lat="42.43279" lon="0.04528">
        <ele>1038.6</ele>
        <time>2016-07-31T09:54:34Z</time>
      </trkpt>
      <trkpt lat="42.4328" lon="0.04532">
        <ele>1038.8</ele>
        <time>2016-07-31T09:54:36Z</time>
      </trkpt>
      <trkpt lat="42.43283" lon="0.04535">
        <ele>1038.9</ele>
        <time>2016-07-31T09:54:38Z</time>
      </trkpt>
      <trkpt lat="42.43285" lon="0.04537">
        <ele>1038.9</ele>
        <time>2016-07-31T09:54:39Z</time>
      </trkpt>
      <trkpt lat="42.43288" lon="0.04539">
        <ele>1038.9</ele>
        <time>2016-07-31T09:54:40Z</time>
      </trkpt>
      <trkpt lat="42.43291" lon="0.04542">
        <ele>1039</ele>
        <time>2016-07-31T09:54:41Z</time>
      </trkpt>
      <trkpt lat="42.43294" lon="0.04544">
        <ele>1038.1</ele>
        <time>2016-07-31T09:54:42Z</time>
      </trkpt>
      <trkpt lat="42.43297" lon="0.04546">
        <ele>1037.1</ele>
        <time>2016-07-31T09:54:43Z</time>
      </trkpt>
      <trkpt lat="42.43299" lon="0.04548">
        <ele>1036.3</ele>
        <time>2016-07-31T09:54:44Z</time>
      </trkpt>
      <trkpt lat="42.43303" lon="0.04553">
        <ele>1034.7</ele>
        <time>2016-07-31T09:54:46Z</time>
      </trkpt>
      <trkpt lat="42.43306" lon="0.04555">
        <ele>1033.9</ele>
        <time>2016-07-31T09:54:47Z</time>
      </trkpt>
      <trkpt lat="42.43308" lon="0.04557">
        <ele>1033.1</ele>
        <time>2016-07-31T09:54:48Z</time>
      </trkpt>
      <trkpt lat="42.43311" lon="0.04559">
        <ele>1032.3</ele>
        <time>2016-07-31T09:54:49Z</time>
      </trkpt>
      <trkpt lat="42.43314" lon="0.04562">
        <ele>1031.4</ele>
        <time>2016-07-31T09:54:50Z</time>
      </trkpt>
      <trkpt lat="42.43317" lon="0.04566">
        <ele>1030.6</ele>
        <time>2016-07-31T09:54:51Z</time>
      </trkpt>
      <trkpt lat="42.43319" lon="0.04571">
        <ele>1029.9</ele>
        <time>2016-07-31T09:54:52Z</time>
      </trkpt>
      <trkpt lat="42.43322" lon="0.04574">
        <ele>1029.3</ele>
        <time>2016-07-31T09:54:53Z</time>
      </trkpt>
      <trkpt lat="42.43323" lon="0.04577">
        <ele>1028.9</ele>
        <time>2016-07-31T09:54:54Z</time>
      </trkpt>
      <trkpt lat="42.43328" lon="0.04581">
        <ele>1028.1</ele>
        <time>2016-07-31T09:54:56Z</time>
      </trkpt>
      <trkpt lat="42.43332" lon="0.04585">
        <ele>1027.5</ele>
        <time>2016-07-31T09:54:58Z</time>
      </trkpt>
      <trkpt lat="42.43334" lon="0.0459">
        <ele>1027.1</ele>
        <time>2016-07-31T09:55:00Z</time>
      </trkpt>
      <trkpt lat="42.43336" lon="0.04593">
        <ele>1026.9</ele>
        <time>2016-07-31T09:55:01Z</time>
      </trkpt>
      <trkpt lat="42.43339" lon="0.04596">
        <ele>1026.6</ele>
        <time>2016-07-31T09:55:02Z</time>
      </trkpt>
      <trkpt lat="42.43342" lon="0.04598">
        <ele>1026.4</ele>
        <time>2016-07-31T09:55:03Z</time>
      </trkpt>
      <trkpt lat="42.43345" lon="0.04601">
        <ele>1026.2</ele>
        <time>2016-07-31T09:55:04Z</time>
      </trkpt>
      <trkpt lat="42.43348" lon="0.04604">
        <ele>1026.1</ele>
        <time>2016-07-31T09:55:05Z</time>
      </trkpt>
      <trkpt lat="42.4335" lon="0.04607">
        <ele>1026.1</ele>
        <time>2016-07-31T09:55:06Z</time>
      </trkpt>
      <trkpt lat="42.43352" lon="0.04611">
        <ele>1026.2</ele>
        <time>2016-07-31T09:55:08Z</time>
      </trkpt>
      <trkpt lat="42.43355" lon="0.04615">
        <ele>1026.3</ele>
        <time>2016-07-31T09:55:10Z</time>
      </trkpt>
      <trkpt lat="42.4336" lon="0.04618">
        <ele>1026.4</ele>
        <time>2016-07-31T09:55:12Z</time>
      </trkpt>
      <trkpt lat="42.43362" lon="0.0462">
        <ele>1026.5</ele>
        <time>2016-07-31T09:55:13Z</time>
      </trkpt>
      <trkpt lat="42.43365" lon="0.04622">
        <ele>1026.7</ele>
        <time>2016-07-31T09:55:14Z</time>
      </trkpt>
      <trkpt lat="42.43368" lon="0.04624">
        <ele>1026.9</ele>
        <time>2016-07-31T09:55:15Z</time>
      </trkpt>
      <trkpt lat="42.4337" lon="0.04627">
        <ele>1026.8</ele>
        <time>2016-07-31T09:55:16Z</time>
      </trkpt>
      <trkpt lat="42.43371" lon="0.04631">
        <ele>1026.6</ele>
        <time>2016-07-31T09:55:17Z</time>
      </trkpt>
      <trkpt lat="42.43372" lon="0.04635">
        <ele>1026.4</ele>
        <time>2016-07-31T09:55:18Z</time>
      </trkpt>
      <trkpt lat="42.43373" lon="0.04639">
        <ele>1026.1</ele>
        <time>2016-07-31T09:55:19Z</time>
      </trkpt>
      <trkpt lat="42.43375" lon="0.04644">
        <ele>1025.7</ele>
        <time>2016-07-31T09:55:20Z</time>
      </trkpt>
      <trkpt lat="42.43379" lon="0.0465">
        <ele>1024.6</ele>
        <time>2016-07-31T09:55:21Z</time>
      </trkpt>
      <trkpt lat="42.43383" lon="0.04655">
        <ele>1023.4</ele>
        <time>2016-07-31T09:55:22Z</time>
      </trkpt>
      <trkpt lat="42.43387" lon="0.0466">
        <ele>1022.4</ele>
        <time>2016-07-31T09:55:23Z</time>
      </trkpt>
      <trkpt lat="42.4339" lon="0.04664">
        <ele>1021.7</ele>
        <time>2016-07-31T09:55:24Z</time>
      </trkpt>
      <trkpt lat="42.43391" lon="0.04668">
        <ele>1021.4</ele>
        <time>2016-07-31T09:55:25Z</time>
      </trkpt>
      <trkpt lat="42.43393" lon="0.04671">
        <ele>1021</ele>
        <time>2016-07-31T09:55:29Z</time>
      </trkpt>
      <trkpt lat="42.43396" lon="0.04674">
        <ele>1020.5</ele>
        <time>2016-07-31T09:55:32Z</time>
      </trkpt>
      <trkpt lat="42.43401" lon="0.04677">
        <ele>1019.8</ele>
        <time>2016-07-31T09:55:34Z</time>
      </trkpt>
      <trkpt lat="42.43403" lon="0.04679">
        <ele>1019.5</ele>
        <time>2016-07-31T09:55:35Z</time>
      </trkpt>
      <trkpt lat="42.43406" lon="0.04681">
        <ele>1019.1</ele>
        <time>2016-07-31T09:55:36Z</time>
      </trkpt>
      <trkpt lat="42.43409" lon="0.04683">
        <ele>1018.7</ele>
        <time>2016-07-31T09:55:37Z</time>
      </trkpt>
      <trkpt lat="42.43412" lon="0.04685">
        <ele>1018.4</ele>
        <time>2016-07-31T09:55:38Z</time>
      </trkpt>
      <trkpt lat="42.43415" lon="0.04686">
        <ele>1018.1</ele>
        <time>2016-07-31T09:55:39Z</time>
      </trkpt>
      <trkpt lat="42.43418" lon="0.04688">
        <ele>1017.9</ele>
        <time>2016-07-31T09:55:40Z</time>
      </trkpt>
      <trkpt lat="42.4342" lon="0.0469">
        <ele>1017.7</ele>
        <time>2016-07-31T09:55:41Z</time>
      </trkpt>
      <trkpt lat="42.43423" lon="0.04693">
        <ele>1017.7</ele>
        <time>2016-07-31T09:55:42Z</time>
      </trkpt>
      <trkpt lat="42.43426" lon="0.04695">
        <ele>1017.6</ele>
        <time>2016-07-31T09:55:43Z</time>
      </trkpt>
      <trkpt lat="42.43429" lon="0.04697">
        <ele>1017.5</ele>
        <time>2016-07-31T09:55:44Z</time>
      </trkpt>
      <trkpt lat="42.43433" lon="0.04699">
        <ele>1017.4</ele>
        <time>2016-07-31T09:55:45Z</time>
      </trkpt>
      <trkpt lat="42.43436" lon="0.047">
        <ele>1017.2</ele>
        <time>2016-07-31T09:55:46Z</time>
      </trkpt>
      <trkpt lat="42.43439" lon="0.04701">
        <ele>1017</ele>
        <time>2016-07-31T09:55:47Z</time>
      </trkpt>
      <trkpt lat="42.43443" lon="0.04703">
        <ele>1017</ele>
        <time>2016-07-31T09:55:49Z</time>
      </trkpt>
      <trkpt lat="42.43447" lon="0.04706">
        <ele>1017.2</ele>
        <time>2016-07-31T09:55:51Z</time>
      </trkpt>
      <trkpt lat="42.4345" lon="0.04707">
        <ele>1017.3</ele>
        <time>2016-07-31T09:55:53Z</time>
      </trkpt>
      <trkpt lat="42.43454" lon="0.04709">
        <ele>1017.2</ele>
        <time>2016-07-31T09:55:55Z</time>
      </trkpt>
      <trkpt lat="42.43457" lon="0.04714">
        <ele>1016.9</ele>
        <time>2016-07-31T09:55:57Z</time>
      </trkpt>
      <trkpt lat="42.43458" lon="0.04718">
        <ele>1016.6</ele>
        <time>2016-07-31T09:55:58Z</time>
      </trkpt>
      <trkpt lat="42.4346" lon="0.04723">
        <ele>1016</ele>
        <time>2016-07-31T09:55:59Z</time>
      </trkpt>
      <trkpt lat="42.43461" lon="0.04729">
        <ele>1015.3</ele>
        <time>2016-07-31T09:56:00Z</time>
      </trkpt>
      <trkpt lat="42.43462" lon="0.04735">
        <ele>1014.6</ele>
        <time>2016-07-31T09:56:01Z</time>
      </trkpt>
      <trkpt lat="42.43465" lon="0.04741">
        <ele>1013.7</ele>
        <time>2016-07-31T09:56:02Z</time>
      </trkpt>
      <trkpt lat="42.43468" lon="0.04748">
        <ele>1012.7</ele>
        <time>2016-07-31T09:56:03Z</time>
      </trkpt>
      <trkpt lat="42.43471" lon="0.04754">
        <ele>1011.6</ele>
        <time>2016-07-31T09:56:04Z</time>
      </trkpt>
      <trkpt lat="42.43475" lon="0.0476">
        <ele>1010.4</ele>
        <time>2016-07-31T09:56:05Z</time>
      </trkpt>
      <trkpt lat="42.4348" lon="0.04765">
        <ele>1009.4</ele>
        <time>2016-07-31T09:56:06Z</time>
      </trkpt>
      <trkpt lat="42.43484" lon="0.04771">
        <ele>1008.6</ele>
        <time>2016-07-31T09:56:07Z</time>
      </trkpt>
      <trkpt lat="42.43487" lon="0.04777">
        <ele>1008</ele>
        <time>2016-07-31T09:56:08Z</time>
      </trkpt>
      <trkpt lat="42.4349" lon="0.04784">
        <ele>1007.7</ele>
        <time>2016-07-31T09:56:09Z</time>
      </trkpt>
      <trkpt lat="42.43494" lon="0.0479">
        <ele>1007.5</ele>
        <time>2016-07-31T09:56:10Z</time>
      </trkpt>
      <trkpt lat="42.43497" lon="0.04794">
        <ele>1006.9</ele>
        <time>2016-07-31T09:56:12Z</time>
      </trkpt>
      <trkpt lat="42.43499" lon="0.04797">
        <ele>1006.3</ele>
        <time>2016-07-31T09:56:14Z</time>
      </trkpt>
      <trkpt lat="42.43502" lon="0.04799">
        <ele>1005.6</ele>
        <time>2016-07-31T09:56:16Z</time>
      </trkpt>
      <trkpt lat="42.43504" lon="0.04802">
        <ele>1005</ele>
        <time>2016-07-31T09:56:17Z</time>
      </trkpt>
      <trkpt lat="42.43508" lon="0.04805">
        <ele>1004.2</ele>
        <time>2016-07-31T09:56:19Z</time>
      </trkpt>
      <trkpt lat="42.4351" lon="0.04809">
        <ele>1003.7</ele>
        <time>2016-07-31T09:56:20Z</time>
      </trkpt>
      <trkpt lat="42.43512" lon="0.04812">
        <ele>1003.3</ele>
        <time>2016-07-31T09:56:21Z</time>
      </trkpt>
      <trkpt lat="42.43513" lon="0.04815">
        <ele>1003</ele>
        <time>2016-07-31T09:56:22Z</time>
      </trkpt>
      <trkpt lat="42.43515" lon="0.04818">
        <ele>1002.6</ele>
        <time>2016-07-31T09:56:23Z</time>
      </trkpt>
      <trkpt lat="42.43518" lon="0.04821">
        <ele>1002.2</ele>
        <time>2016-07-31T09:56:24Z</time>
      </trkpt>
      <trkpt lat="42.43521" lon="0.04825">
        <ele>1001.9</ele>
        <time>2016-07-31T09:56:25Z</time>
      </trkpt>
      <trkpt lat="42.43524" lon="0.04829">
        <ele>1001.6</ele>
        <time>2016-07-31T09:56:26Z</time>
      </trkpt>
      <trkpt lat="42.43527" lon="0.04833">
        <ele>1001.3</ele>
        <time>2016-07-31T09:56:27Z</time>
      </trkpt>
      <trkpt lat="42.4353" lon="0.04836">
        <ele>1001.1</ele>
        <time>2016-07-31T09:56:28Z</time>
      </trkpt>
      <trkpt lat="42.43533" lon="0.04839">
        <ele>1001</ele>
        <time>2016-07-31T09:56:29Z</time>
      </trkpt>
      <trkpt lat="42.43535" lon="0.04842">
        <ele>1001</ele>
        <time>2016-07-31T09:56:30Z</time>
      </trkpt>
      <trkpt lat="42.43538" lon="0.04845">
        <ele>1001</ele>
        <time>2016-07-31T09:56:31Z</time>
      </trkpt>
      <trkpt lat="42.4354" lon="0.04849">
        <ele>1001.1</ele>
        <time>2016-07-31T09:56:32Z</time>
      </trkpt>
      <trkpt lat="42.43542" lon="0.04851">
        <ele>1001.1</ele>
        <time>2016-07-31T09:56:33Z</time>
      </trkpt>
      <trkpt lat="42.43545" lon="0.04857">
        <ele>1000.2</ele>
        <time>2016-07-31T09:56:35Z</time>
      </trkpt>
      <trkpt lat="42.43548" lon="0.0486">
        <ele>999.4</ele>
        <time>2016-07-31T09:56:36Z</time>
      </trkpt>
      <trkpt lat="42.43551" lon="0.04862">
        <ele>998.4</ele>
        <time>2016-07-31T09:56:37Z</time>
      </trkpt>
      <trkpt lat="42.43555" lon="0.04863">
        <ele>997.3</ele>
        <time>2016-07-31T09:56:38Z</time>
      </trkpt>
      <trkpt lat="42.43558" lon="0.04865">
        <ele>996.2</ele>
        <time>2016-07-31T09:56:39Z</time>
      </trkpt>
      <trkpt lat="42.43561" lon="0.04866">
        <ele>995.3</ele>
        <time>2016-07-31T09:56:40Z</time>
      </trkpt>
      <trkpt lat="42.43564" lon="0.04867">
        <ele>994.5</ele>
        <time>2016-07-31T09:56:41Z</time>
      </trkpt>
      <trkpt lat="42.43567" lon="0.04871">
        <ele>993.8</ele>
        <time>2016-07-31T09:56:43Z</time>
      </trkpt>
      <trkpt lat="42.43569" lon="0.04875">
        <ele>993.7</ele>
        <time>2016-07-31T09:56:45Z</time>
      </trkpt>
      <trkpt lat="42.43572" lon="0.04878">
        <ele>992.5</ele>
        <time>2016-07-31T09:56:48Z</time>
      </trkpt>
      <trkpt lat="42.43576" lon="0.04881">
        <ele>991.3</ele>
        <time>2016-07-31T09:56:50Z</time>
      </trkpt>
      <trkpt lat="42.43579" lon="0.04884">
        <ele>990.2</ele>
        <time>2016-07-31T09:56:52Z</time>
      </trkpt>
      <trkpt lat="42.4358" lon="0.04888">
        <ele>989.6</ele>
        <time>2016-07-31T09:56:53Z</time>
      </trkpt>
      <trkpt lat="42.43581" lon="0.04891">
        <ele>989.1</ele>
        <time>2016-07-31T09:56:54Z</time>
      </trkpt>
      <trkpt lat="42.43581" lon="0.04898">
        <ele>988.6</ele>
        <time>2016-07-31T09:56:56Z</time>
      </trkpt>
      <trkpt lat="42.43583" lon="0.04903">
        <ele>987.8</ele>
        <time>2016-07-31T09:56:58Z</time>
      </trkpt>
      <trkpt lat="42.43586" lon="0.04905">
        <ele>987.3</ele>
        <time>2016-07-31T09:56:59Z</time>
      </trkpt>
      <trkpt lat="42.43591" lon="0.04907">
        <ele>986.3</ele>
        <time>2016-07-31T09:57:01Z</time>
      </trkpt>
      <trkpt lat="42.43594" lon="0.04908">
        <ele>985.6</ele>
        <time>2016-07-31T09:57:03Z</time>
      </trkpt>
      <trkpt lat="42.43597" lon="0.04911">
        <ele>985</ele>
        <time>2016-07-31T09:57:05Z</time>
      </trkpt>
      <trkpt lat="42.43601" lon="0.04915">
        <ele>984.4</ele>
        <time>2016-07-31T09:57:07Z</time>
      </trkpt>
      <trkpt lat="42.43604" lon="0.04918">
        <ele>984</ele>
        <time>2016-07-31T09:57:09Z</time>
      </trkpt>
      <trkpt lat="42.43606" lon="0.04922">
        <ele>983.9</ele>
        <time>2016-07-31T09:57:14Z</time>
      </trkpt>
      <trkpt lat="42.43609" lon="0.04924">
        <ele>983.6</ele>
        <time>2016-07-31T09:57:21Z</time>
      </trkpt>
      <trkpt lat="42.43611" lon="0.04927">
        <ele>983.4</ele>
        <time>2016-07-31T09:57:23Z</time>
      </trkpt>
      <trkpt lat="42.43614" lon="0.04932">
        <ele>983.4</ele>
        <time>2016-07-31T09:57:25Z</time>
      </trkpt>
      <trkpt lat="42.43618" lon="0.04935">
        <ele>983.3</ele>
        <time>2016-07-31T09:57:27Z</time>
      </trkpt>
      <trkpt lat="42.43622" lon="0.04937">
        <ele>983.2</ele>
        <time>2016-07-31T09:57:29Z</time>
      </trkpt>
      <trkpt lat="42.43625" lon="0.0494">
        <ele>983.3</ele>
        <time>2016-07-31T09:57:31Z</time>
      </trkpt>
      <trkpt lat="42.43627" lon="0.04944">
        <ele>983</ele>
        <time>2016-07-31T09:57:33Z</time>
      </trkpt>
      <trkpt lat="42.43629" lon="0.04948">
        <ele>982.7</ele>
        <time>2016-07-31T09:57:35Z</time>
      </trkpt>
      <trkpt lat="42.43631" lon="0.04952">
        <ele>982.4</ele>
        <time>2016-07-31T09:57:37Z</time>
      </trkpt>
      <trkpt lat="42.43634" lon="0.04955">
        <ele>981.8</ele>
        <time>2016-07-31T09:57:39Z</time>
      </trkpt>
      <trkpt lat="42.43637" lon="0.04957">
        <ele>981.1</ele>
        <time>2016-07-31T09:57:41Z</time>
      </trkpt>
      <trkpt lat="42.43641" lon="0.04959">
        <ele>980.2</ele>
        <time>2016-07-31T09:57:43Z</time>
      </trkpt>
      <trkpt lat="42.43644" lon="0.04961">
        <ele>979.1</ele>
        <time>2016-07-31T09:57:45Z</time>
      </trkpt>
      <trkpt lat="42.43647" lon="0.04964">
        <ele>977.9</ele>
        <time>2016-07-31T09:57:47Z</time>
      </trkpt>
      <trkpt lat="42.4365" lon="0.04969">
        <ele>976.8</ele>
        <time>2016-07-31T09:57:49Z</time>
      </trkpt>
      <trkpt lat="42.43652" lon="0.04971">
        <ele>976.1</ele>
        <time>2016-07-31T09:57:50Z</time>
      </trkpt>
      <trkpt lat="42.43654" lon="0.04974">
        <ele>975.2</ele>
        <time>2016-07-31T09:57:51Z</time>
      </trkpt>
      <trkpt lat="42.43658" lon="0.04976">
        <ele>974.3</ele>
        <time>2016-07-31T09:57:52Z</time>
      </trkpt>
      <trkpt lat="42.43661" lon="0.04979">
        <ele>973.4</ele>
        <time>2016-07-31T09:57:53Z</time>
      </trkpt>
      <trkpt lat="42.43664" lon="0.04982">
        <ele>972.8</ele>
        <time>2016-07-31T09:57:54Z</time>
      </trkpt>
      <trkpt lat="42.43666" lon="0.04984">
        <ele>972.4</ele>
        <time>2016-07-31T09:57:55Z</time>
      </trkpt>
      <trkpt lat="42.43668" lon="0.04987">
        <ele>971.9</ele>
        <time>2016-07-31T09:57:56Z</time>
      </trkpt>
      <trkpt lat="42.43671" lon="0.0499">
        <ele>971.4</ele>
        <time>2016-07-31T09:57:57Z</time>
      </trkpt>
      <trkpt lat="42.43674" lon="0.04992">
        <ele>971</ele>
        <time>2016-07-31T09:57:58Z</time>
      </trkpt>
      <trkpt lat="42.43677" lon="0.04995">
        <ele>970.7</ele>
        <time>2016-07-31T09:57:59Z</time>
      </trkpt>
      <trkpt lat="42.4368" lon="0.04999">
        <ele>970.4</ele>
        <time>2016-07-31T09:58:01Z</time>
      </trkpt>
      <trkpt lat="42.43683" lon="0.05004">
        <ele>970.3</ele>
        <time>2016-07-31T09:58:03Z</time>
      </trkpt>
      <trkpt lat="42.43686" lon="0.05007">
        <ele>970.2</ele>
        <time>2016-07-31T09:58:05Z</time>
      </trkpt>
      <trkpt lat="42.4369" lon="0.0501">
        <ele>970.1</ele>
        <time>2016-07-31T09:58:07Z</time>
      </trkpt>
      <trkpt lat="42.43692" lon="0.05012">
        <ele>970.1</ele>
        <time>2016-07-31T09:58:08Z</time>
      </trkpt>
      <trkpt lat="42.43695" lon="0.05014">
        <ele>970.2</ele>
        <time>2016-07-31T09:58:09Z</time>
      </trkpt>
      <trkpt lat="42.43697" lon="0.05017">
        <ele>970.3</ele>
        <time>2016-07-31T09:58:10Z</time>
      </trkpt>
      <trkpt lat="42.43699" lon="0.05019">
        <ele>970.5</ele>
        <time>2016-07-31T09:58:11Z</time>
      </trkpt>
      <trkpt lat="42.43701" lon="0.05021">
        <ele>970.8</ele>
        <time>2016-07-31T09:58:12Z</time>
      </trkpt>
      <trkpt lat="42.43705" lon="0.05026">
        <ele>971.3</ele>
        <time>2016-07-31T09:58:14Z</time>
      </trkpt>
      <trkpt lat="42.4371" lon="0.05027">
        <ele>971.1</ele>
        <time>2016-07-31T09:58:16Z</time>
      </trkpt>
      <trkpt lat="42.43714" lon="0.05029">
        <ele>970</ele>
        <time>2016-07-31T09:58:18Z</time>
      </trkpt>
      <trkpt lat="42.43717" lon="0.05032">
        <ele>969.2</ele>
        <time>2016-07-31T09:58:20Z</time>
      </trkpt>
      <trkpt lat="42.43721" lon="0.05035">
        <ele>968.7</ele>
        <time>2016-07-31T09:58:22Z</time>
      </trkpt>
      <trkpt lat="42.43724" lon="0.05038">
        <ele>968.3</ele>
        <time>2016-07-31T09:58:24Z</time>
      </trkpt>
      <trkpt lat="42.43727" lon="0.05041">
        <ele>968.2</ele>
        <time>2016-07-31T09:58:26Z</time>
      </trkpt>
      <trkpt lat="42.43728" lon="0.05048">
        <ele>967.1</ele>
        <time>2016-07-31T09:58:28Z</time>
      </trkpt>
      <trkpt lat="42.43729" lon="0.05053">
        <ele>966.3</ele>
        <time>2016-07-31T09:58:30Z</time>
      </trkpt>
      <trkpt lat="42.43731" lon="0.05057">
        <ele>965.6</ele>
        <time>2016-07-31T09:58:32Z</time>
      </trkpt>
      <trkpt lat="42.43734" lon="0.05059">
        <ele>964.6</ele>
        <time>2016-07-31T09:58:34Z</time>
      </trkpt>
      <trkpt lat="42.43737" lon="0.05062">
        <ele>963.5</ele>
        <time>2016-07-31T09:58:36Z</time>
      </trkpt>
      <trkpt lat="42.43742" lon="0.05064">
        <ele>962.2</ele>
        <time>2016-07-31T09:58:38Z</time>
      </trkpt>
      <trkpt lat="42.43747" lon="0.05066">
        <ele>960.9</ele>
        <time>2016-07-31T09:58:40Z</time>
      </trkpt>
      <trkpt lat="42.4375" lon="0.05068">
        <ele>960.2</ele>
        <time>2016-07-31T09:58:41Z</time>
      </trkpt>
      <trkpt lat="42.43753" lon="0.0507">
        <ele>959.3</ele>
        <time>2016-07-31T09:58:42Z</time>
      </trkpt>
      <trkpt lat="42.43757" lon="0.05073">
        <ele>958.4</ele>
        <time>2016-07-31T09:58:43Z</time>
      </trkpt>
      <trkpt lat="42.43761" lon="0.05076">
        <ele>957.5</ele>
        <time>2016-07-31T09:58:44Z</time>
      </trkpt>
      <trkpt lat="42.43764" lon="0.05078">
        <ele>956.9</ele>
        <time>2016-07-31T09:58:45Z</time>
      </trkpt>
      <trkpt lat="42.43767" lon="0.0508">
        <ele>956.3</ele>
        <time>2016-07-31T09:58:46Z</time>
      </trkpt>
      <trkpt lat="42.43771" lon="0.05083">
        <ele>955.7</ele>
        <time>2016-07-31T09:58:47Z</time>
      </trkpt>
      <trkpt lat="42.43774" lon="0.05086">
        <ele>955.2</ele>
        <time>2016-07-31T09:58:48Z</time>
      </trkpt>
      <trkpt lat="42.43777" lon="0.05089">
        <ele>954.9</ele>
        <time>2016-07-31T09:58:49Z</time>
      </trkpt>
      <trkpt lat="42.4378" lon="0.05093">
        <ele>954.7</ele>
        <time>2016-07-31T09:58:50Z</time>
      </trkpt>
      <trkpt lat="42.43782" lon="0.05096">
        <ele>954.5</ele>
        <time>2016-07-31T09:58:51Z</time>
      </trkpt>
      <trkpt lat="42.43786" lon="0.05099">
        <ele>954.3</ele>
        <time>2016-07-31T09:58:52Z</time>
      </trkpt>
      <trkpt lat="42.4379" lon="0.05103">
        <ele>954.1</ele>
        <time>2016-07-31T09:58:53Z</time>
      </trkpt>
      <trkpt lat="42.43793" lon="0.05106">
        <ele>953.6</ele>
        <time>2016-07-31T09:58:54Z</time>
      </trkpt>
      <trkpt lat="42.43797" lon="0.05109">
        <ele>952.9</ele>
        <time>2016-07-31T09:58:55Z</time>
      </trkpt>
      <trkpt lat="42.438" lon="0.05112">
        <ele>952.2</ele>
        <time>2016-07-31T09:58:56Z</time>
      </trkpt>
      <trkpt lat="42.43804" lon="0.05114">
        <ele>951.5</ele>
        <time>2016-07-31T09:58:57Z</time>
      </trkpt>
      <trkpt lat="42.43808" lon="0.05117">
        <ele>950.8</ele>
        <time>2016-07-31T09:58:58Z</time>
      </trkpt>
      <trkpt lat="42.43811" lon="0.05119">
        <ele>950.2</ele>
        <time>2016-07-31T09:58:59Z</time>
      </trkpt>
      <trkpt lat="42.43814" lon="0.0512">
        <ele>949.6</ele>
        <time>2016-07-31T09:59:00Z</time>
      </trkpt>
      <trkpt lat="42.43817" lon="0.05122">
        <ele>949.1</ele>
        <time>2016-07-31T09:59:01Z</time>
      </trkpt>
      <trkpt lat="42.4382" lon="0.05123">
        <ele>948.5</ele>
        <time>2016-07-31T09:59:02Z</time>
      </trkpt>
      <trkpt lat="42.43823" lon="0.05124">
        <ele>947.8</ele>
        <time>2016-07-31T09:59:03Z</time>
      </trkpt>
      <trkpt lat="42.43827" lon="0.05126">
        <ele>947.1</ele>
        <time>2016-07-31T09:59:04Z</time>
      </trkpt>
      <trkpt lat="42.4383" lon="0.05128">
        <ele>946</ele>
        <time>2016-07-31T09:59:05Z</time>
      </trkpt>
      <trkpt lat="42.43833" lon="0.05131">
        <ele>944.9</ele>
        <time>2016-07-31T09:59:06Z</time>
      </trkpt>
      <trkpt lat="42.43836" lon="0.05134">
        <ele>944.1</ele>
        <time>2016-07-31T09:59:07Z</time>
      </trkpt>
      <trkpt lat="42.43838" lon="0.05136">
        <ele>943.3</ele>
        <time>2016-07-31T09:59:08Z</time>
      </trkpt>
      <trkpt lat="42.4384" lon="0.05139">
        <ele>942.7</ele>
        <time>2016-07-31T09:59:09Z</time>
      </trkpt>
      <trkpt lat="42.43842" lon="0.05143">
        <ele>942</ele>
        <time>2016-07-31T09:59:10Z</time>
      </trkpt>
      <trkpt lat="42.43845" lon="0.05147">
        <ele>941.3</ele>
        <time>2016-07-31T09:59:11Z</time>
      </trkpt>
      <trkpt lat="42.43849" lon="0.05151">
        <ele>940.3</ele>
        <time>2016-07-31T09:59:12Z</time>
      </trkpt>
      <trkpt lat="42.43853" lon="0.05154">
        <ele>939.5</ele>
        <time>2016-07-31T09:59:13Z</time>
      </trkpt>
      <trkpt lat="42.43856" lon="0.05156">
        <ele>938.9</ele>
        <time>2016-07-31T09:59:14Z</time>
      </trkpt>
      <trkpt lat="42.43859" lon="0.05156">
        <ele>938.5</ele>
        <time>2016-07-31T09:59:15Z</time>
      </trkpt>
      <trkpt lat="42.43864" lon="0.05159">
        <ele>937.8</ele>
        <time>2016-07-31T09:59:17Z</time>
      </trkpt>
      <trkpt lat="42.43866" lon="0.05162">
        <ele>937.5</ele>
        <time>2016-07-31T09:59:18Z</time>
      </trkpt>
      <trkpt lat="42.43869" lon="0.05165">
        <ele>937.2</ele>
        <time>2016-07-31T09:59:20Z</time>
      </trkpt>
      <trkpt lat="42.43874" lon="0.05169">
        <ele>936.7</ele>
        <time>2016-07-31T10:00:14Z</time>
      </trkpt>
      <trkpt lat="42.43876" lon="0.05172">
        <ele>936.4</ele>
        <time>2016-07-31T10:00:16Z</time>
      </trkpt>
      <trkpt lat="42.43878" lon="0.05175">
        <ele>936.1</ele>
        <time>2016-07-31T10:00:18Z</time>
      </trkpt>
      <trkpt lat="42.43879" lon="0.05179">
        <ele>936</ele>
        <time>2016-07-31T10:00:20Z</time>
      </trkpt>
      <trkpt lat="42.4388" lon="0.05184">
        <ele>936</ele>
        <time>2016-07-31T10:00:22Z</time>
      </trkpt>
      <trkpt lat="42.43882" lon="0.05188">
        <ele>936</ele>
        <time>2016-07-31T10:00:23Z</time>
      </trkpt>
      <trkpt lat="42.43883" lon="0.05192">
        <ele>936</ele>
        <time>2016-07-31T10:00:24Z</time>
      </trkpt>
      <trkpt lat="42.43884" lon="0.05195">
        <ele>936</ele>
        <time>2016-07-31T10:00:25Z</time>
      </trkpt>
      <trkpt lat="42.43886" lon="0.05198">
        <ele>936</ele>
        <time>2016-07-31T10:00:26Z</time>
      </trkpt>
      <trkpt lat="42.43888" lon="0.05202">
        <ele>936</ele>
        <time>2016-07-31T10:00:27Z</time>
      </trkpt>
      <trkpt lat="42.43891" lon="0.05206">
        <ele>936.1</ele>
        <time>2016-07-31T10:00:29Z</time>
      </trkpt>
      <trkpt lat="42.43893" lon="0.0521">
        <ele>935.8</ele>
        <time>2016-07-31T10:00:31Z</time>
      </trkpt>
      <trkpt lat="42.43896" lon="0.05213">
        <ele>934.8</ele>
        <time>2016-07-31T10:00:33Z</time>
      </trkpt>
      <trkpt lat="42.43898" lon="0.05216">
        <ele>934.1</ele>
        <time>2016-07-31T10:00:35Z</time>
      </trkpt>
      <trkpt lat="42.43899" lon="0.05219">
        <ele>933.3</ele>
        <time>2016-07-31T10:00:37Z</time>
      </trkpt>
      <trkpt lat="42.43901" lon="0.05225">
        <ele>932.1</ele>
        <time>2016-07-31T10:00:39Z</time>
      </trkpt>
      <trkpt lat="42.43902" lon="0.05229">
        <ele>931.1</ele>
        <time>2016-07-31T10:00:41Z</time>
      </trkpt>
      <trkpt lat="42.43905" lon="0.05235">
        <ele>929.9</ele>
        <time>2016-07-31T10:00:43Z</time>
      </trkpt>
      <trkpt lat="42.43906" lon="0.05239">
        <ele>929.2</ele>
        <time>2016-07-31T10:00:45Z</time>
      </trkpt>
      <trkpt lat="42.43908" lon="0.05242">
        <ele>928.6</ele>
        <time>2016-07-31T10:00:52Z</time>
      </trkpt>
      <trkpt lat="42.43909" lon="0.05246">
        <ele>927.9</ele>
        <time>2016-07-31T10:00:57Z</time>
      </trkpt>
      <trkpt lat="42.43911" lon="0.05249">
        <ele>927.4</ele>
        <time>2016-07-31T10:01:04Z</time>
      </trkpt>
      <trkpt lat="42.43913" lon="0.05253">
        <ele>926.8</ele>
        <time>2016-07-31T10:01:07Z</time>
      </trkpt>
      <trkpt lat="42.43913" lon="0.05257">
        <ele>926.2</ele>
        <time>2016-07-31T10:01:09Z</time>
      </trkpt>
      <trkpt lat="42.43914" lon="0.05261">
        <ele>925.5</ele>
        <time>2016-07-31T10:01:11Z</time>
      </trkpt>
      <trkpt lat="42.43914" lon="0.05264">
        <ele>925</ele>
        <time>2016-07-31T10:01:13Z</time>
      </trkpt>
      <trkpt lat="42.43915" lon="0.05268">
        <ele>924.4</ele>
        <time>2016-07-31T10:01:16Z</time>
      </trkpt>
      <trkpt lat="42.43917" lon="0.05272">
        <ele>923.9</ele>
        <time>2016-07-31T10:01:19Z</time>
      </trkpt>
      <trkpt lat="42.43919" lon="0.05275">
        <ele>923.7</ele>
        <time>2016-07-31T10:01:26Z</time>
      </trkpt>
      <trkpt lat="42.43922" lon="0.05277">
        <ele>923.6</ele>
        <time>2016-07-31T10:01:29Z</time>
      </trkpt>
      <trkpt lat="42.43925" lon="0.05281">
        <ele>923.4</ele>
        <time>2016-07-31T10:01:31Z</time>
      </trkpt>
      <trkpt lat="42.43927" lon="0.05284">
        <ele>923.1</ele>
        <time>2016-07-31T10:01:33Z</time>
      </trkpt>
      <trkpt lat="42.43928" lon="0.05288">
        <ele>922.9</ele>
        <time>2016-07-31T10:01:35Z</time>
      </trkpt>
      <trkpt lat="42.4393" lon="0.05292">
        <ele>922.6</ele>
        <time>2016-07-31T10:01:37Z</time>
      </trkpt>
      <trkpt lat="42.43933" lon="0.05296">
        <ele>921.6</ele>
        <time>2016-07-31T10:01:39Z</time>
      </trkpt>
      <trkpt lat="42.43935" lon="0.05299">
        <ele>920.9</ele>
        <time>2016-07-31T10:01:41Z</time>
      </trkpt>
      <trkpt lat="42.43938" lon="0.05304">
        <ele>919.9</ele>
        <time>2016-07-31T10:01:43Z</time>
      </trkpt>
      <trkpt lat="42.4394" lon="0.05309">
        <ele>918.5</ele>
        <time>2016-07-31T10:01:45Z</time>
      </trkpt>
      <trkpt lat="42.43942" lon="0.05314">
        <ele>917.3</ele>
        <time>2016-07-31T10:01:47Z</time>
      </trkpt>
      <trkpt lat="42.43943" lon="0.05318">
        <ele>916.4</ele>
        <time>2016-07-31T10:01:49Z</time>
      </trkpt>
      <trkpt lat="42.43944" lon="0.05322">
        <ele>915.4</ele>
        <time>2016-07-31T10:01:53Z</time>
      </trkpt>
      <trkpt lat="42.43946" lon="0.05325">
        <ele>914.5</ele>
        <time>2016-07-31T10:02:00Z</time>
      </trkpt>
      <trkpt lat="42.43947" lon="0.05329">
        <ele>913.5</ele>
        <time>2016-07-31T10:02:09Z</time>
      </trkpt>
      <trkpt lat="42.43949" lon="0.05332">
        <ele>912.8</ele>
        <time>2016-07-31T10:02:13Z</time>
      </trkpt>
      <trkpt lat="42.4395" lon="0.05336">
        <ele>911.9</ele>
        <time>2016-07-31T10:02:16Z</time>
      </trkpt>
      <trkpt lat="42.43951" lon="0.0534">
        <ele>910.8</ele>
        <time>2016-07-31T10:02:19Z</time>
      </trkpt>
      <trkpt lat="42.43953" lon="0.05343">
        <ele>910.1</ele>
        <time>2016-07-31T10:02:23Z</time>
      </trkpt>
      <trkpt lat="42.43955" lon="0.05345">
        <ele>909.6</ele>
        <time>2016-07-31T10:02:34Z</time>
      </trkpt>
      <trkpt lat="42.43958" lon="0.05353">
        <ele>907.6</ele>
        <time>2016-07-31T10:02:52Z</time>
      </trkpt>
      <trkpt lat="42.4396" lon="0.05355">
        <ele>907.2</ele>
        <time>2016-07-31T10:03:06Z</time>
      </trkpt>
      <trkpt lat="42.43962" lon="0.05359">
        <ele>906.1</ele>
        <time>2016-07-31T10:03:10Z</time>
      </trkpt>
      <trkpt lat="42.43964" lon="0.05363">
        <ele>905.2</ele>
        <time>2016-07-31T10:03:12Z</time>
      </trkpt>
      <trkpt lat="42.43966" lon="0.05368">
        <ele>903.8</ele>
        <time>2016-07-31T10:03:14Z</time>
      </trkpt>
      <trkpt lat="42.43968" lon="0.05373">
        <ele>902.6</ele>
        <time>2016-07-31T10:03:16Z</time>
      </trkpt>
      <trkpt lat="42.4397" lon="0.05378">
        <ele>901.4</ele>
        <time>2016-07-31T10:03:18Z</time>
      </trkpt>
      <trkpt lat="42.43972" lon="0.05382">
        <ele>900.2</ele>
        <time>2016-07-31T10:03:20Z</time>
      </trkpt>
      <trkpt lat="42.43974" lon="0.05387">
        <ele>898.8</ele>
        <time>2016-07-31T10:03:22Z</time>
      </trkpt>
      <trkpt lat="42.43975" lon="0.05391">
        <ele>897.8</ele>
        <time>2016-07-31T10:03:24Z</time>
      </trkpt>
      <trkpt lat="42.43978" lon="0.05395">
        <ele>896.8</ele>
        <time>2016-07-31T10:03:26Z</time>
      </trkpt>
      <trkpt lat="42.4398" lon="0.05399">
        <ele>895.8</ele>
        <time>2016-07-31T10:03:28Z</time>
      </trkpt>
      <trkpt lat="42.43983" lon="0.05403">
        <ele>895</ele>
        <time>2016-07-31T10:03:30Z</time>
      </trkpt>
      <trkpt lat="42.43985" lon="0.05407">
        <ele>894</ele>
        <time>2016-07-31T10:03:32Z</time>
      </trkpt>
      <trkpt lat="42.43988" lon="0.05411">
        <ele>892.8</ele>
        <time>2016-07-31T10:03:34Z</time>
      </trkpt>
      <trkpt lat="42.4399" lon="0.05416">
        <ele>891.7</ele>
        <time>2016-07-31T10:03:36Z</time>
      </trkpt>
      <trkpt lat="42.43992" lon="0.05419">
        <ele>891</ele>
        <time>2016-07-31T10:03:38Z</time>
      </trkpt>
      <trkpt lat="42.43994" lon="0.05421">
        <ele>890.3</ele>
        <time>2016-07-31T10:03:40Z</time>
      </trkpt>
      <trkpt lat="42.43995" lon="0.05425">
        <ele>889.4</ele>
        <time>2016-07-31T10:03:42Z</time>
      </trkpt>
      <trkpt lat="42.43996" lon="0.05428">
        <ele>888.4</ele>
        <time>2016-07-31T10:03:44Z</time>
      </trkpt>
      <trkpt lat="42.43998" lon="0.05431">
        <ele>887.7</ele>
        <time>2016-07-31T10:03:56Z</time>
      </trkpt>
      <trkpt lat="42.43998" lon="0.05436">
        <ele>886.4</ele>
        <time>2016-07-31T10:04:07Z</time>
      </trkpt>
      <trkpt lat="42.44" lon="0.0544">
        <ele>885.2</ele>
        <time>2016-07-31T10:04:15Z</time>
      </trkpt>
      <trkpt lat="42.44001" lon="0.05443">
        <ele>884.3</ele>
        <time>2016-07-31T10:04:21Z</time>
      </trkpt>
      <trkpt lat="42.44002" lon="0.05447">
        <ele>883.3</ele>
        <time>2016-07-31T10:04:27Z</time>
      </trkpt>
      <trkpt lat="42.44004" lon="0.0545">
        <ele>882.7</ele>
        <time>2016-07-31T10:04:33Z</time>
      </trkpt>
      <trkpt lat="42.44005" lon="0.05453">
        <ele>881.8</ele>
        <time>2016-07-31T10:04:37Z</time>
      </trkpt>
      <trkpt lat="42.44006" lon="0.05457">
        <ele>880.7</ele>
        <time>2016-07-31T10:04:43Z</time>
      </trkpt>
      <trkpt lat="42.44009" lon="0.05459">
        <ele>880.1</ele>
        <time>2016-07-31T10:04:48Z</time>
      </trkpt>
      <trkpt lat="42.4401" lon="0.05463">
        <ele>879.2</ele>
        <time>2016-07-31T10:04:55Z</time>
      </trkpt>
      <trkpt lat="42.44012" lon="0.05466">
        <ele>878.5</ele>
        <time>2016-07-31T10:05:02Z</time>
      </trkpt>
      <trkpt lat="42.44014" lon="0.05469">
        <ele>877.8</ele>
        <time>2016-07-31T10:05:05Z</time>
      </trkpt>
      <trkpt lat="42.44015" lon="0.05473">
        <ele>876.6</ele>
        <time>2016-07-31T10:05:09Z</time>
      </trkpt>
      <trkpt lat="42.44017" lon="0.05476">
        <ele>875.7</ele>
        <time>2016-07-31T10:05:15Z</time>
      </trkpt>
      <trkpt lat="42.44017" lon="0.0548">
        <ele>874.5</ele>
        <time>2016-07-31T10:05:19Z</time>
      </trkpt>
      <trkpt lat="42.44018" lon="0.05484">
        <ele>873.4</ele>
        <time>2016-07-31T10:05:23Z</time>
      </trkpt>
      <trkpt lat="42.44019" lon="0.05487">
        <ele>872.4</ele>
        <time>2016-07-31T10:05:27Z</time>
      </trkpt>
      <trkpt lat="42.44022" lon="0.05491">
        <ele>871.6</ele>
        <time>2016-07-31T10:05:31Z</time>
      </trkpt>
      <trkpt lat="42.44024" lon="0.05494">
        <ele>870.8</ele>
        <time>2016-07-31T10:05:34Z</time>
      </trkpt>
      <trkpt lat="42.44026" lon="0.05496">
        <ele>870.2</ele>
        <time>2016-07-31T10:05:37Z</time>
      </trkpt>
      <trkpt lat="42.44028" lon="0.05501">
        <ele>869</ele>
        <time>2016-07-31T10:05:39Z</time>
      </trkpt>
      <trkpt lat="42.44029" lon="0.05505">
        <ele>867.5</ele>
        <time>2016-07-31T10:05:41Z</time>
      </trkpt>
      <trkpt lat="42.4403" lon="0.05509">
        <ele>866.5</ele>
        <time>2016-07-31T10:05:43Z</time>
      </trkpt>
      <trkpt lat="42.44032" lon="0.05513">
        <ele>865.6</ele>
        <time>2016-07-31T10:05:45Z</time>
      </trkpt>
      <trkpt lat="42.44034" lon="0.05516">
        <ele>864.7</ele>
        <time>2016-07-31T10:05:47Z</time>
      </trkpt>
      <trkpt lat="42.44037" lon="0.0552">
        <ele>863.6</ele>
        <time>2016-07-31T10:05:49Z</time>
      </trkpt>
      <trkpt lat="42.44039" lon="0.05524">
        <ele>862.3</ele>
        <time>2016-07-31T10:05:51Z</time>
      </trkpt>
      <trkpt lat="42.44041" lon="0.05529">
        <ele>861</ele>
        <time>2016-07-31T10:05:53Z</time>
      </trkpt>
      <trkpt lat="42.44043" lon="0.05533">
        <ele>860</ele>
        <time>2016-07-31T10:05:55Z</time>
      </trkpt>
      <trkpt lat="42.44044" lon="0.05536">
        <ele>859.1</ele>
        <time>2016-07-31T10:05:57Z</time>
      </trkpt>
      <trkpt lat="42.44046" lon="0.0554">
        <ele>858</ele>
        <time>2016-07-31T10:05:59Z</time>
      </trkpt>
      <trkpt lat="42.44047" lon="0.05544">
        <ele>857.2</ele>
        <time>2016-07-31T10:06:01Z</time>
      </trkpt>
      <trkpt lat="42.4405" lon="0.05547">
        <ele>856.6</ele>
        <time>2016-07-31T10:06:04Z</time>
      </trkpt>
      <trkpt lat="42.44052" lon="0.0555">
        <ele>855.9</ele>
        <time>2016-07-31T10:06:06Z</time>
      </trkpt>
      <trkpt lat="42.44054" lon="0.05554">
        <ele>855</ele>
        <time>2016-07-31T10:06:08Z</time>
      </trkpt>
      <trkpt lat="42.44056" lon="0.05558">
        <ele>854.3</ele>
        <time>2016-07-31T10:06:10Z</time>
      </trkpt>
      <trkpt lat="42.44059" lon="0.05561">
        <ele>853.8</ele>
        <time>2016-07-31T10:06:12Z</time>
      </trkpt>
      <trkpt lat="42.44061" lon="0.05564">
        <ele>853.1</ele>
        <time>2016-07-31T10:06:14Z</time>
      </trkpt>
      <trkpt lat="42.44062" lon="0.05568">
        <ele>852.2</ele>
        <time>2016-07-31T10:06:16Z</time>
      </trkpt>
      <trkpt lat="42.44064" lon="0.05572">
        <ele>851.1</ele>
        <time>2016-07-31T10:06:18Z</time>
      </trkpt>
      <trkpt lat="42.44066" lon="0.05577">
        <ele>850.1</ele>
        <time>2016-07-31T10:06:20Z</time>
      </trkpt>
      <trkpt lat="42.44069" lon="0.05581">
        <ele>849</ele>
        <time>2016-07-31T10:06:22Z</time>
      </trkpt>
      <trkpt lat="42.4407" lon="0.05585">
        <ele>848</ele>
        <time>2016-07-31T10:06:24Z</time>
      </trkpt>
      <trkpt lat="42.44075" lon="0.05591">
        <ele>846.8</ele>
        <time>2016-07-31T10:06:45Z</time>
      </trkpt>
      <trkpt lat="42.44076" lon="0.05594">
        <ele>846</ele>
        <time>2016-07-31T10:06:51Z</time>
      </trkpt>
      <trkpt lat="42.44077" lon="0.05599">
        <ele>844.8</ele>
        <time>2016-07-31T10:06:55Z</time>
      </trkpt>
      <trkpt lat="42.44077" lon="0.05605">
        <ele>843.1</ele>
        <time>2016-07-31T10:06:57Z</time>
      </trkpt>
      <trkpt lat="42.44079" lon="0.05611">
        <ele>841.3</ele>
        <time>2016-07-31T10:06:59Z</time>
      </trkpt>
      <trkpt lat="42.44081" lon="0.05615">
        <ele>840.3</ele>
        <time>2016-07-31T10:07:03Z</time>
      </trkpt>
      <trkpt lat="42.44084" lon="0.05618">
        <ele>839.6</ele>
        <time>2016-07-31T10:07:05Z</time>
      </trkpt>
      <trkpt lat="42.44087" lon="0.05622">
        <ele>838.7</ele>
        <time>2016-07-31T10:07:07Z</time>
      </trkpt>
      <trkpt lat="42.44089" lon="0.05625">
        <ele>838</ele>
        <time>2016-07-31T10:07:09Z</time>
      </trkpt>
      <trkpt lat="42.44091" lon="0.05628">
        <ele>837.2</ele>
        <time>2016-07-31T10:07:11Z</time>
      </trkpt>
      <trkpt lat="42.44094" lon="0.05633">
        <ele>836</ele>
        <time>2016-07-31T10:07:13Z</time>
      </trkpt>
      <trkpt lat="42.44097" lon="0.05638">
        <ele>834.7</ele>
        <time>2016-07-31T10:07:15Z</time>
      </trkpt>
      <trkpt lat="42.44098" lon="0.05642">
        <ele>833.6</ele>
        <time>2016-07-31T10:07:17Z</time>
      </trkpt>
      <trkpt lat="42.44099" lon="0.05647">
        <ele>832.1</ele>
        <time>2016-07-31T10:07:19Z</time>
      </trkpt>
      <trkpt lat="42.441" lon="0.0565">
        <ele>831.1</ele>
        <time>2016-07-31T10:07:21Z</time>
      </trkpt>
      <trkpt lat="42.44102" lon="0.05654">
        <ele>830.1</ele>
        <time>2016-07-31T10:07:23Z</time>
      </trkpt>
      <trkpt lat="42.44104" lon="0.05657">
        <ele>829.4</ele>
        <time>2016-07-31T10:07:24Z</time>
      </trkpt>
      <trkpt lat="42.44106" lon="0.05661">
        <ele>828.5</ele>
        <time>2016-07-31T10:07:25Z</time>
      </trkpt>
      <trkpt lat="42.44109" lon="0.05665">
        <ele>827.6</ele>
        <time>2016-07-31T10:07:26Z</time>
      </trkpt>
      <trkpt lat="42.44111" lon="0.05668">
        <ele>826.8</ele>
        <time>2016-07-31T10:07:27Z</time>
      </trkpt>
      <trkpt lat="42.44115" lon="0.05672">
        <ele>826.1</ele>
        <time>2016-07-31T10:07:29Z</time>
      </trkpt>
      <trkpt lat="42.44118" lon="0.05675">
        <ele>825.5</ele>
        <time>2016-07-31T10:07:31Z</time>
      </trkpt>
      <trkpt lat="42.4412" lon="0.05678">
        <ele>824.5</ele>
        <time>2016-07-31T10:07:33Z</time>
      </trkpt>
      <trkpt lat="42.44123" lon="0.05682">
        <ele>823.6</ele>
        <time>2016-07-31T10:07:36Z</time>
      </trkpt>
      <trkpt lat="42.44123" lon="0.05686">
        <ele>822.4</ele>
        <time>2016-07-31T10:07:47Z</time>
      </trkpt>
      <trkpt lat="42.44125" lon="0.05689">
        <ele>821.8</ele>
        <time>2016-07-31T10:07:51Z</time>
      </trkpt>
      <trkpt lat="42.44126" lon="0.05692">
        <ele>821</ele>
        <time>2016-07-31T10:07:55Z</time>
      </trkpt>
      <trkpt lat="42.44128" lon="0.05696">
        <ele>820.1</ele>
        <time>2016-07-31T10:07:58Z</time>
      </trkpt>
      <trkpt lat="42.44129" lon="0.05701">
        <ele>819</ele>
        <time>2016-07-31T10:08:02Z</time>
      </trkpt>
      <trkpt lat="42.44131" lon="0.05703">
        <ele>818.5</ele>
        <time>2016-07-31T10:08:05Z</time>
      </trkpt>
      <trkpt lat="42.44134" lon="0.05706">
        <ele>818.3</ele>
        <time>2016-07-31T10:08:08Z</time>
      </trkpt>
      <trkpt lat="42.44136" lon="0.05709">
        <ele>817.7</ele>
        <time>2016-07-31T10:08:12Z</time>
      </trkpt>
      <trkpt lat="42.44137" lon="0.05713">
        <ele>816.8</ele>
        <time>2016-07-31T10:08:17Z</time>
      </trkpt>
      <trkpt lat="42.44138" lon="0.05717">
        <ele>815.6</ele>
        <time>2016-07-31T10:08:25Z</time>
      </trkpt>
      <trkpt lat="42.44138" lon="0.05721">
        <ele>814.5</ele>
        <time>2016-07-31T10:08:28Z</time>
      </trkpt>
      <trkpt lat="42.4414" lon="0.05723">
        <ele>814.4</ele>
        <time>2016-07-31T10:08:39Z</time>
      </trkpt>
      <trkpt lat="42.44143" lon="0.05731">
        <ele>812.5</ele>
        <time>2016-07-31T10:09:25Z</time>
      </trkpt>
      <trkpt lat="42.44144" lon="0.05734">
        <ele>811.8</ele>
        <time>2016-07-31T10:09:28Z</time>
      </trkpt>
      <trkpt lat="42.44147" lon="0.05737">
        <ele>811.2</ele>
        <time>2016-07-31T10:09:31Z</time>
      </trkpt>
      <trkpt lat="42.44148" lon="0.05741">
        <ele>810.4</ele>
        <time>2016-07-31T10:09:34Z</time>
      </trkpt>
      <trkpt lat="42.4415" lon="0.05743">
        <ele>809.9</ele>
        <time>2016-07-31T10:09:37Z</time>
      </trkpt>
      <trkpt lat="42.44151" lon="0.05747">
        <ele>809.2</ele>
        <time>2016-07-31T10:09:41Z</time>
      </trkpt>
      <trkpt lat="42.44153" lon="0.05751">
        <ele>808.2</ele>
        <time>2016-07-31T10:09:45Z</time>
      </trkpt>
      <trkpt lat="42.44155" lon="0.05754">
        <ele>807.8</ele>
        <time>2016-07-31T10:09:48Z</time>
      </trkpt>
      <trkpt lat="42.44157" lon="0.05757">
        <ele>807</ele>
        <time>2016-07-31T10:09:51Z</time>
      </trkpt>
      <trkpt lat="42.44159" lon="0.05761">
        <ele>806.3</ele>
        <time>2016-07-31T10:09:54Z</time>
      </trkpt>
      <trkpt lat="42.44159" lon="0.05766">
        <ele>805</ele>
        <time>2016-07-31T10:09:58Z</time>
      </trkpt>
      <trkpt lat="42.4416" lon="0.05769">
        <ele>804</ele>
        <time>2016-07-31T10:10:01Z</time>
      </trkpt>
      <trkpt lat="42.44162" lon="0.05773">
        <ele>803.4</ele>
        <time>2016-07-31T10:10:04Z</time>
      </trkpt>
      <trkpt lat="42.44164" lon="0.05776">
        <ele>802.7</ele>
        <time>2016-07-31T10:10:10Z</time>
      </trkpt>
      <trkpt lat="42.44166" lon="0.05779">
        <ele>802.2</ele>
        <time>2016-07-31T10:10:13Z</time>
      </trkpt>
      <trkpt lat="42.44167" lon="0.05783">
        <ele>801.1</ele>
        <time>2016-07-31T10:10:16Z</time>
      </trkpt>
      <trkpt lat="42.44168" lon="0.05787">
        <ele>800</ele>
        <time>2016-07-31T10:10:18Z</time>
      </trkpt>
      <trkpt lat="42.44168" lon="0.05791">
        <ele>798.9</ele>
        <time>2016-07-31T10:10:22Z</time>
      </trkpt>
      <trkpt lat="42.4417" lon="0.05795">
        <ele>798.1</ele>
        <time>2016-07-31T10:10:26Z</time>
      </trkpt>
      <trkpt lat="42.44172" lon="0.05798">
        <ele>797.8</ele>
        <time>2016-07-31T10:10:30Z</time>
      </trkpt>
      <trkpt lat="42.44174" lon="0.058">
        <ele>797.7</ele>
        <time>2016-07-31T10:10:34Z</time>
      </trkpt>
      <trkpt lat="42.44178" lon="0.058">
        <ele>798</ele>
        <time>2016-07-31T10:10:37Z</time>
      </trkpt>
      <trkpt lat="42.4418" lon="0.05802">
        <ele>797.9</ele>
        <time>2016-07-31T10:10:40Z</time>
      </trkpt>
      <trkpt lat="42.44182" lon="0.05805">
        <ele>797.4</ele>
        <time>2016-07-31T10:10:45Z</time>
      </trkpt>
      <trkpt lat="42.44184" lon="0.05809">
        <ele>796.6</ele>
        <time>2016-07-31T10:10:49Z</time>
      </trkpt>
      <trkpt lat="42.44184" lon="0.05813">
        <ele>795.7</ele>
        <time>2016-07-31T10:10:52Z</time>
      </trkpt>
      <trkpt lat="42.44186" lon="0.05817">
        <ele>795</ele>
        <time>2016-07-31T10:10:56Z</time>
      </trkpt>
      <trkpt lat="42.44189" lon="0.05819">
        <ele>794.8</ele>
        <time>2016-07-31T10:10:59Z</time>
      </trkpt>
      <trkpt lat="42.44191" lon="0.05822">
        <ele>794.3</ele>
        <time>2016-07-31T10:11:03Z</time>
      </trkpt>
      <trkpt lat="42.44192" lon="0.05826">
        <ele>793.3</ele>
        <time>2016-07-31T10:11:08Z</time>
      </trkpt>
      <trkpt lat="42.44192" lon="0.0583">
        <ele>792.3</ele>
        <time>2016-07-31T10:11:12Z</time>
      </trkpt>
      <trkpt lat="42.44193" lon="0.05835">
        <ele>791</ele>
        <time>2016-07-31T10:11:16Z</time>
      </trkpt>
      <trkpt lat="42.44195" lon="0.0584">
        <ele>790</ele>
        <time>2016-07-31T10:11:18Z</time>
      </trkpt>
      <trkpt lat="42.44198" lon="0.05844">
        <ele>789.2</ele>
        <time>2016-07-31T10:11:20Z</time>
      </trkpt>
      <trkpt lat="42.44201" lon="0.05848">
        <ele>788.5</ele>
        <time>2016-07-31T10:11:22Z</time>
      </trkpt>
      <trkpt lat="42.44204" lon="0.05852">
        <ele>788</ele>
        <time>2016-07-31T10:11:24Z</time>
      </trkpt>
      <trkpt lat="42.44207" lon="0.05855">
        <ele>787.3</ele>
        <time>2016-07-31T10:11:26Z</time>
      </trkpt>
      <trkpt lat="42.4421" lon="0.05861">
        <ele>786.2</ele>
        <time>2016-07-31T10:11:28Z</time>
      </trkpt>
      <trkpt lat="42.44213" lon="0.05866">
        <ele>785.1</ele>
        <time>2016-07-31T10:11:30Z</time>
      </trkpt>
      <trkpt lat="42.44214" lon="0.05869">
        <ele>784.2</ele>
        <time>2016-07-31T10:11:31Z</time>
      </trkpt>
      <trkpt lat="42.44215" lon="0.05875">
        <ele>782.7</ele>
        <time>2016-07-31T10:11:33Z</time>
      </trkpt>
      <trkpt lat="42.44217" lon="0.05881">
        <ele>781.6</ele>
        <time>2016-07-31T10:11:35Z</time>
      </trkpt>
      <trkpt lat="42.44219" lon="0.05888">
        <ele>780.1</ele>
        <time>2016-07-31T10:11:37Z</time>
      </trkpt>
      <trkpt lat="42.44221" lon="0.05892">
        <ele>779.4</ele>
        <time>2016-07-31T10:11:38Z</time>
      </trkpt>
      <trkpt lat="42.44222" lon="0.05896">
        <ele>778.7</ele>
        <time>2016-07-31T10:11:39Z</time>
      </trkpt>
      <trkpt lat="42.44224" lon="0.05899">
        <ele>778.1</ele>
        <time>2016-07-31T10:11:40Z</time>
      </trkpt>
      <trkpt lat="42.44225" lon="0.05904">
        <ele>777</ele>
        <time>2016-07-31T10:11:42Z</time>
      </trkpt>
      <trkpt lat="42.44225" lon="0.05909">
        <ele>775.8</ele>
        <time>2016-07-31T10:11:44Z</time>
      </trkpt>
      <trkpt lat="42.44224" lon="0.05914">
        <ele>774.6</ele>
        <time>2016-07-31T10:11:46Z</time>
      </trkpt>
      <trkpt lat="42.44226" lon="0.05919">
        <ele>773.6</ele>
        <time>2016-07-31T10:11:48Z</time>
      </trkpt>
      <trkpt lat="42.44229" lon="0.05922">
        <ele>773.2</ele>
        <time>2016-07-31T10:11:50Z</time>
      </trkpt>
      <trkpt lat="42.44233" lon="0.05926">
        <ele>772.6</ele>
        <time>2016-07-31T10:11:52Z</time>
      </trkpt>
      <trkpt lat="42.44236" lon="0.05931">
        <ele>771.8</ele>
        <time>2016-07-31T10:11:54Z</time>
      </trkpt>
      <trkpt lat="42.44238" lon="0.05935">
        <ele>771</ele>
        <time>2016-07-31T10:11:56Z</time>
      </trkpt>
      <trkpt lat="42.4424" lon="0.0594">
        <ele>770</ele>
        <time>2016-07-31T10:11:58Z</time>
      </trkpt>
      <trkpt lat="42.44241" lon="0.05946">
        <ele>768.6</ele>
        <time>2016-07-31T10:12:00Z</time>
      </trkpt>
      <trkpt lat="42.44242" lon="0.05952">
        <ele>767.4</ele>
        <time>2016-07-31T10:12:02Z</time>
      </trkpt>
      <trkpt lat="42.44244" lon="0.05955">
        <ele>766.7</ele>
        <time>2016-07-31T10:12:04Z</time>
      </trkpt>
      <trkpt lat="42.44247" lon="0.05958">
        <ele>766.4</ele>
        <time>2016-07-31T10:12:06Z</time>
      </trkpt>
      <trkpt lat="42.44249" lon="0.05961">
        <ele>765.4</ele>
        <time>2016-07-31T10:12:18Z</time>
      </trkpt>
      <trkpt lat="42.4425" lon="0.05965">
        <ele>764.5</ele>
        <time>2016-07-31T10:12:34Z</time>
      </trkpt>
      <trkpt lat="42.44251" lon="0.05969">
        <ele>763.4</ele>
        <time>2016-07-31T10:12:38Z</time>
      </trkpt>
      <trkpt lat="42.44252" lon="0.05972">
        <ele>762.5</ele>
        <time>2016-07-31T10:12:42Z</time>
      </trkpt>
      <trkpt lat="42.44254" lon="0.05976">
        <ele>761.3</ele>
        <time>2016-07-31T10:12:51Z</time>
      </trkpt>
      <trkpt lat="42.44255" lon="0.0598">
        <ele>760.1</ele>
        <time>2016-07-31T10:12:55Z</time>
      </trkpt>
      <trkpt lat="42.44255" lon="0.05984">
        <ele>758.9</ele>
        <time>2016-07-31T10:13:02Z</time>
      </trkpt>
      <trkpt lat="42.44256" lon="0.05988">
        <ele>757.8</ele>
        <time>2016-07-31T10:13:11Z</time>
      </trkpt>
      <trkpt lat="42.44258" lon="0.05991">
        <ele>757.2</ele>
        <time>2016-07-31T10:13:16Z</time>
      </trkpt>
      <trkpt lat="42.4426" lon="0.05994">
        <ele>756.3</ele>
        <time>2016-07-31T10:13:19Z</time>
      </trkpt>
      <trkpt lat="42.44263" lon="0.05998">
        <ele>755.3</ele>
        <time>2016-07-31T10:13:22Z</time>
      </trkpt>
      <trkpt lat="42.44265" lon="0.06">
        <ele>754.9</ele>
        <time>2016-07-31T10:13:26Z</time>
      </trkpt>
      <trkpt lat="42.44266" lon="0.06004">
        <ele>753.7</ele>
        <time>2016-07-31T10:13:32Z</time>
      </trkpt>
      <trkpt lat="42.44268" lon="0.06006">
        <ele>753</ele>
        <time>2016-07-31T10:13:37Z</time>
      </trkpt>
      <trkpt lat="42.44269" lon="0.0601">
        <ele>751.8</ele>
        <time>2016-07-31T10:13:42Z</time>
      </trkpt>
      <trkpt lat="42.44269" lon="0.06014">
        <ele>750.5</ele>
        <time>2016-07-31T10:13:45Z</time>
      </trkpt>
      <trkpt lat="42.44271" lon="0.06018">
        <ele>749.5</ele>
        <time>2016-07-31T10:13:50Z</time>
      </trkpt>
      <trkpt lat="42.44273" lon="0.0602">
        <ele>748.9</ele>
        <time>2016-07-31T10:13:57Z</time>
      </trkpt>
      <trkpt lat="42.44275" lon="0.06026">
        <ele>747.2</ele>
        <time>2016-07-31T10:13:59Z</time>
      </trkpt>
      <trkpt lat="42.44276" lon="0.0603">
        <ele>746</ele>
        <time>2016-07-31T10:14:00Z</time>
      </trkpt>
      <trkpt lat="42.44278" lon="0.06035">
        <ele>744.6</ele>
        <time>2016-07-31T10:14:01Z</time>
      </trkpt>
      <trkpt lat="42.44279" lon="0.06039">
        <ele>743.1</ele>
        <time>2016-07-31T10:14:02Z</time>
      </trkpt>
      <trkpt lat="42.44281" lon="0.06043">
        <ele>742.2</ele>
        <time>2016-07-31T10:14:03Z</time>
      </trkpt>
      <trkpt lat="42.44284" lon="0.06049">
        <ele>740.2</ele>
        <time>2016-07-31T10:14:05Z</time>
      </trkpt>
      <trkpt lat="42.44287" lon="0.06054">
        <ele>738.7</ele>
        <time>2016-07-31T10:14:06Z</time>
      </trkpt>
      <trkpt lat="42.4429" lon="0.06059">
        <ele>737.2</ele>
        <time>2016-07-31T10:14:07Z</time>
      </trkpt>
      <trkpt lat="42.44293" lon="0.06065">
        <ele>735.7</ele>
        <time>2016-07-31T10:14:08Z</time>
      </trkpt>
      <trkpt lat="42.44296" lon="0.0607">
        <ele>734.1</ele>
        <time>2016-07-31T10:14:09Z</time>
      </trkpt>
      <trkpt lat="42.44299" lon="0.06077">
        <ele>732.4</ele>
        <time>2016-07-31T10:14:10Z</time>
      </trkpt>
      <trkpt lat="42.44301" lon="0.06083">
        <ele>730.8</ele>
        <time>2016-07-31T10:14:11Z</time>
      </trkpt>
      <trkpt lat="42.44304" lon="0.06087">
        <ele>729.6</ele>
        <time>2016-07-31T10:14:12Z</time>
      </trkpt>
      <trkpt lat="42.44307" lon="0.06092">
        <ele>728.6</ele>
        <time>2016-07-31T10:14:13Z</time>
      </trkpt>
      <trkpt lat="42.4431" lon="0.06096">
        <ele>727.7</ele>
        <time>2016-07-31T10:14:14Z</time>
      </trkpt>
      <trkpt lat="42.44313" lon="0.06099">
        <ele>726.8</ele>
        <time>2016-07-31T10:14:15Z</time>
      </trkpt>
      <trkpt lat="42.44316" lon="0.06103">
        <ele>726.1</ele>
        <time>2016-07-31T10:14:16Z</time>
      </trkpt>
      <trkpt lat="42.44319" lon="0.06105">
        <ele>725.6</ele>
        <time>2016-07-31T10:14:17Z</time>
      </trkpt>
      <trkpt lat="42.44323" lon="0.06109">
        <ele>724.9</ele>
        <time>2016-07-31T10:14:19Z</time>
      </trkpt>
      <trkpt lat="42.44325" lon="0.06112">
        <ele>724.1</ele>
        <time>2016-07-31T10:14:20Z</time>
      </trkpt>
      <trkpt lat="42.44327" lon="0.06116">
        <ele>723.2</ele>
        <time>2016-07-31T10:14:21Z</time>
      </trkpt>
      <trkpt lat="42.44328" lon="0.0612">
        <ele>722</ele>
        <time>2016-07-31T10:14:22Z</time>
      </trkpt>
      <trkpt lat="42.4433" lon="0.06125">
        <ele>720.6</ele>
        <time>2016-07-31T10:14:24Z</time>
      </trkpt>
      <trkpt lat="42.44332" lon="0.06128">
        <ele>720</ele>
        <time>2016-07-31T10:14:26Z</time>
      </trkpt>
      <trkpt lat="42.44334" lon="0.06133">
        <ele>718.7</ele>
        <time>2016-07-31T10:14:28Z</time>
      </trkpt>
      <trkpt lat="42.44335" lon="0.06138">
        <ele>717.5</ele>
        <time>2016-07-31T10:14:30Z</time>
      </trkpt>
      <trkpt lat="42.44337" lon="0.06142">
        <ele>716.6</ele>
        <time>2016-07-31T10:14:31Z</time>
      </trkpt>
      <trkpt lat="42.44338" lon="0.06146">
        <ele>715.7</ele>
        <time>2016-07-31T10:14:32Z</time>
      </trkpt>
      <trkpt lat="42.44339" lon="0.06151">
        <ele>714.2</ele>
        <time>2016-07-31T10:14:34Z</time>
      </trkpt>
      <trkpt lat="42.44336" lon="0.06151">
        <ele>714</ele>
        <time>2016-07-31T10:15:45Z</time>
      </trkpt>
      <trkpt lat="42.44332" lon="0.06151">
        <ele>713.6</ele>
        <time>2016-07-31T10:15:47Z</time>
      </trkpt>
      <trkpt lat="42.44328" lon="0.06151">
        <ele>713.1</ele>
        <time>2016-07-31T10:15:49Z</time>
      </trkpt>
      <trkpt lat="42.44326" lon="0.06153">
        <ele>712.1</ele>
        <time>2016-07-31T10:15:52Z</time>
      </trkpt>
      <trkpt lat="42.44327" lon="0.06157">
        <ele>711.4</ele>
        <time>2016-07-31T10:15:56Z</time>
      </trkpt>
      <trkpt lat="42.44332" lon="0.06158">
        <ele>711.4</ele>
        <time>2016-07-31T10:15:59Z</time>
      </trkpt>
      <trkpt lat="42.44335" lon="0.06162">
        <ele>710.9</ele>
        <time>2016-07-31T10:16:01Z</time>
      </trkpt>
      <trkpt lat="42.44336" lon="0.06167">
        <ele>709.4</ele>
        <time>2016-07-31T10:16:03Z</time>
      </trkpt>
      <trkpt lat="42.44334" lon="0.06173">
        <ele>707.6</ele>
        <time>2016-07-31T10:16:05Z</time>
      </trkpt>
      <trkpt lat="42.44332" lon="0.06176">
        <ele>706.5</ele>
        <time>2016-07-31T10:16:07Z</time>
      </trkpt>
      <trkpt lat="42.44335" lon="0.06177">
        <ele>706.6</ele>
        <time>2016-07-31T10:16:17Z</time>
      </trkpt>
      <trkpt lat="42.44334" lon="0.06181">
        <ele>705.4</ele>
        <time>2016-07-31T10:16:25Z</time>
      </trkpt>
      <trkpt lat="42.44333" lon="0.06185">
        <ele>704</ele>
        <time>2016-07-31T10:16:28Z</time>
      </trkpt>
      <trkpt lat="42.44331" lon="0.06189">
        <ele>702.7</ele>
        <time>2016-07-31T10:16:30Z</time>
      </trkpt>
      <trkpt lat="42.44332" lon="0.06193">
        <ele>701.8</ele>
        <time>2016-07-31T10:16:34Z</time>
      </trkpt>
      <trkpt lat="42.44336" lon="0.06193">
        <ele>702.2</ele>
        <time>2016-07-31T10:16:36Z</time>
      </trkpt>
      <trkpt lat="42.44339" lon="0.06192">
        <ele>702.8</ele>
        <time>2016-07-31T10:16:38Z</time>
      </trkpt>
      <trkpt lat="42.4434" lon="0.06198">
        <ele>701.3</ele>
        <time>2016-07-31T10:16:41Z</time>
      </trkpt>
      <trkpt lat="42.44338" lon="0.06202">
        <ele>699.8</ele>
        <time>2016-07-31T10:16:43Z</time>
      </trkpt>
      <trkpt lat="42.44337" lon="0.06207">
        <ele>698.4</ele>
        <time>2016-07-31T10:16:45Z</time>
      </trkpt>
      <trkpt lat="42.44341" lon="0.06208">
        <ele>698.6</ele>
        <time>2016-07-31T10:16:49Z</time>
      </trkpt>
      <trkpt lat="42.44345" lon="0.06205">
        <ele>699.8</ele>
        <time>2016-07-31T10:16:51Z</time>
      </trkpt>
      <trkpt lat="42.44348" lon="0.06203">
        <ele>700.8</ele>
        <time>2016-07-31T10:16:53Z</time>
      </trkpt>
      <trkpt lat="42.44351" lon="0.06201">
        <ele>701.8</ele>
        <time>2016-07-31T10:16:55Z</time>
      </trkpt>
      <trkpt lat="42.44353" lon="0.06199">
        <ele>702.8</ele>
        <time>2016-07-31T10:16:57Z</time>
      </trkpt>
      <trkpt lat="42.44356" lon="0.06197">
        <ele>703.6</ele>
        <time>2016-07-31T10:16:59Z</time>
      </trkpt>
      <trkpt lat="42.44359" lon="0.06199">
        <ele>703.4</ele>
        <time>2016-07-31T10:17:09Z</time>
      </trkpt>
      <trkpt lat="42.4436" lon="0.06203">
        <ele>702.4</ele>
        <time>2016-07-31T10:17:15Z</time>
      </trkpt>
      <trkpt lat="42.44359" lon="0.06208">
        <ele>701.1</ele>
        <time>2016-07-31T10:17:18Z</time>
      </trkpt>
      <trkpt lat="42.44357" lon="0.06209">
        <ele>700.5</ele>
        <time>2016-07-31T10:17:21Z</time>
      </trkpt>
      <trkpt lat="42.44355" lon="0.06212">
        <ele>699.1</ele>
        <time>2016-07-31T10:17:25Z</time>
      </trkpt>
      <trkpt lat="42.44354" lon="0.06216">
        <ele>697.8</ele>
        <time>2016-07-31T10:17:28Z</time>
      </trkpt>
      <trkpt lat="42.44357" lon="0.06216">
        <ele>698.3</ele>
        <time>2016-07-31T10:17:35Z</time>
      </trkpt>
      <trkpt lat="42.4436" lon="0.06214">
        <ele>699.2</ele>
        <time>2016-07-31T10:17:39Z</time>
      </trkpt>
      <trkpt lat="42.44364" lon="0.06211">
        <ele>700.5</ele>
        <time>2016-07-31T10:17:42Z</time>
      </trkpt>
      <trkpt lat="42.44368" lon="0.06208">
        <ele>702.3</ele>
        <time>2016-07-31T10:17:44Z</time>
      </trkpt>
      <trkpt lat="42.44372" lon="0.06205">
        <ele>703.4</ele>
        <time>2016-07-31T10:17:45Z</time>
      </trkpt>
      <trkpt lat="42.44375" lon="0.06203">
        <ele>704.4</ele>
        <time>2016-07-31T10:17:46Z</time>
      </trkpt>
      <trkpt lat="42.44379" lon="0.06201">
        <ele>703.6</ele>
        <time>2016-07-31T10:17:47Z</time>
      </trkpt>
      <trkpt lat="42.44381" lon="0.06198">
        <ele>703.3</ele>
        <time>2016-07-31T10:17:48Z</time>
      </trkpt>
      <trkpt lat="42.44383" lon="0.06194">
        <ele>703.4</ele>
        <time>2016-07-31T10:17:50Z</time>
      </trkpt>
      <trkpt lat="42.44386" lon="0.06189">
        <ele>703.7</ele>
        <time>2016-07-31T10:17:52Z</time>
      </trkpt>
      <trkpt lat="42.44388" lon="0.06185">
        <ele>703.8</ele>
        <time>2016-07-31T10:17:53Z</time>
      </trkpt>
      <trkpt lat="42.4439" lon="0.06182">
        <ele>703.8</ele>
        <time>2016-07-31T10:17:54Z</time>
      </trkpt>
      <trkpt lat="42.44391" lon="0.06179">
        <ele>704.3</ele>
        <time>2016-07-31T10:17:55Z</time>
      </trkpt>
      <trkpt lat="42.44392" lon="0.06172">
        <ele>706</ele>
        <time>2016-07-31T10:17:57Z</time>
      </trkpt>
      <trkpt lat="42.44393" lon="0.06166">
        <ele>707.5</ele>
        <time>2016-07-31T10:17:59Z</time>
      </trkpt>
      <trkpt lat="42.44396" lon="0.06161">
        <ele>707.4</ele>
        <time>2016-07-31T10:18:01Z</time>
      </trkpt>
      <trkpt lat="42.44401" lon="0.06159">
        <ele>706</ele>
        <time>2016-07-31T10:18:03Z</time>
      </trkpt>
      <trkpt lat="42.44404" lon="0.06157">
        <ele>705</ele>
        <time>2016-07-31T10:18:05Z</time>
      </trkpt>
      <trkpt lat="42.44406" lon="0.0616">
        <ele>703.4</ele>
        <time>2016-07-31T10:18:09Z</time>
      </trkpt>
      <trkpt lat="42.44409" lon="0.06161">
        <ele>701.9</ele>
        <time>2016-07-31T10:18:12Z</time>
      </trkpt>
      <trkpt lat="42.44411" lon="0.06158">
        <ele>702</ele>
        <time>2016-07-31T10:18:17Z</time>
      </trkpt>
      <trkpt lat="42.44413" lon="0.06155">
        <ele>702.1</ele>
        <time>2016-07-31T10:18:24Z</time>
      </trkpt>
      <trkpt lat="42.44415" lon="0.06153">
        <ele>701.7</ele>
        <time>2016-07-31T10:18:27Z</time>
      </trkpt>
      <trkpt lat="42.44418" lon="0.06151">
        <ele>701.2</ele>
        <time>2016-07-31T10:18:31Z</time>
      </trkpt>
      <trkpt lat="42.44421" lon="0.0615">
        <ele>700.1</ele>
        <time>2016-07-31T10:18:33Z</time>
      </trkpt>
      <trkpt lat="42.44424" lon="0.0615">
        <ele>699</ele>
        <time>2016-07-31T10:18:34Z</time>
      </trkpt>
      <trkpt lat="42.44428" lon="0.06148">
        <ele>697.9</ele>
        <time>2016-07-31T10:18:35Z</time>
      </trkpt>
      <trkpt lat="42.44431" lon="0.06146">
        <ele>697</ele>
        <time>2016-07-31T10:18:36Z</time>
      </trkpt>
      <trkpt lat="42.44434" lon="0.06144">
        <ele>696.5</ele>
        <time>2016-07-31T10:18:37Z</time>
      </trkpt>
      <trkpt lat="42.44437" lon="0.06141">
        <ele>696.1</ele>
        <time>2016-07-31T10:18:38Z</time>
      </trkpt>
      <trkpt lat="42.44439" lon="0.06138">
        <ele>695.9</ele>
        <time>2016-07-31T10:18:39Z</time>
      </trkpt>
      <trkpt lat="42.44443" lon="0.06135">
        <ele>695.3</ele>
        <time>2016-07-31T10:18:41Z</time>
      </trkpt>
      <trkpt lat="42.44448" lon="0.06134">
        <ele>693.7</ele>
        <time>2016-07-31T10:18:43Z</time>
      </trkpt>
      <trkpt lat="42.44452" lon="0.06133">
        <ele>692.3</ele>
        <time>2016-07-31T10:18:45Z</time>
      </trkpt>
      <trkpt lat="42.44454" lon="0.06131">
        <ele>692.1</ele>
        <time>2016-07-31T10:18:47Z</time>
      </trkpt>
      <trkpt lat="42.44455" lon="0.06127">
        <ele>692.6</ele>
        <time>2016-07-31T10:18:50Z</time>
      </trkpt>
      <trkpt lat="42.44453" lon="0.06126">
        <ele>694</ele>
        <time>2016-07-31T10:18:56Z</time>
      </trkpt>
      <trkpt lat="42.44455" lon="0.06123">
        <ele>694</ele>
        <time>2016-07-31T10:19:03Z</time>
      </trkpt>
      <trkpt lat="42.44457" lon="0.06119">
        <ele>694.3</ele>
        <time>2016-07-31T10:19:07Z</time>
      </trkpt>
      <trkpt lat="42.44459" lon="0.06114">
        <ele>694.4</ele>
        <time>2016-07-31T10:19:10Z</time>
      </trkpt>
      <trkpt lat="42.44462" lon="0.06109">
        <ele>693.9</ele>
        <time>2016-07-31T10:19:12Z</time>
      </trkpt>
      <trkpt lat="42.44463" lon="0.06104">
        <ele>694.3</ele>
        <time>2016-07-31T10:19:14Z</time>
      </trkpt>
      <trkpt lat="42.44464" lon="0.061">
        <ele>694.9</ele>
        <time>2016-07-31T10:19:15Z</time>
      </trkpt>
      <trkpt lat="42.44465" lon="0.06096">
        <ele>695.5</ele>
        <time>2016-07-31T10:19:16Z</time>
      </trkpt>
      <trkpt lat="42.44466" lon="0.06092">
        <ele>696</ele>
        <time>2016-07-31T10:19:17Z</time>
      </trkpt>
      <trkpt lat="42.44467" lon="0.06088">
        <ele>696.2</ele>
        <time>2016-07-31T10:19:18Z</time>
      </trkpt>
      <trkpt lat="42.44469" lon="0.06084">
        <ele>695.9</ele>
        <time>2016-07-31T10:19:19Z</time>
      </trkpt>
      <trkpt lat="42.4447" lon="0.06081">
        <ele>695.3</ele>
        <time>2016-07-31T10:19:20Z</time>
      </trkpt>
      <trkpt lat="42.44474" lon="0.06077">
        <ele>693.9</ele>
        <time>2016-07-31T10:19:22Z</time>
      </trkpt>
      <trkpt lat="42.44476" lon="0.06072">
        <ele>693.1</ele>
        <time>2016-07-31T10:19:24Z</time>
      </trkpt>
      <trkpt lat="42.44478" lon="0.06068">
        <ele>693</ele>
        <time>2016-07-31T10:19:26Z</time>
      </trkpt>
      <trkpt lat="42.44481" lon="0.06061">
        <ele>692.9</ele>
        <time>2016-07-31T10:19:28Z</time>
      </trkpt>
      <trkpt lat="42.44483" lon="0.06057">
        <ele>692</ele>
        <time>2016-07-31T10:19:29Z</time>
      </trkpt>
      <trkpt lat="42.44486" lon="0.06053">
        <ele>690.6</ele>
        <time>2016-07-31T10:19:30Z</time>
      </trkpt>
      <trkpt lat="42.44489" lon="0.06051">
        <ele>688.8</ele>
        <time>2016-07-31T10:19:32Z</time>
      </trkpt>
      <trkpt lat="42.4449" lon="0.06055">
        <ele>687</ele>
        <time>2016-07-31T10:19:34Z</time>
      </trkpt>
      <trkpt lat="42.44489" lon="0.06059">
        <ele>686.6</ele>
        <time>2016-07-31T10:19:35Z</time>
      </trkpt>
      <trkpt lat="42.44488" lon="0.06063">
        <ele>686.6</ele>
        <time>2016-07-31T10:19:36Z</time>
      </trkpt>
      <trkpt lat="42.44486" lon="0.06067">
        <ele>686.8</ele>
        <time>2016-07-31T10:19:37Z</time>
      </trkpt>
      <trkpt lat="42.44485" lon="0.06071">
        <ele>686.8</ele>
        <time>2016-07-31T10:19:38Z</time>
      </trkpt>
      <trkpt lat="42.44484" lon="0.06074">
        <ele>686.6</ele>
        <time>2016-07-31T10:19:39Z</time>
      </trkpt>
      <trkpt lat="42.44482" lon="0.06078">
        <ele>687.3</ele>
        <time>2016-07-31T10:19:40Z</time>
      </trkpt>
      <trkpt lat="42.4448" lon="0.06082">
        <ele>687.5</ele>
        <time>2016-07-31T10:19:42Z</time>
      </trkpt>
      <trkpt lat="42.44484" lon="0.06084">
        <ele>683.7</ele>
        <time>2016-07-31T10:19:52Z</time>
      </trkpt>
      <trkpt lat="42.44488" lon="0.06083">
        <ele>681.6</ele>
        <time>2016-07-31T10:19:59Z</time>
      </trkpt>
      <trkpt lat="42.44488" lon="0.06087">
        <ele>680</ele>
        <time>2016-07-31T10:20:55Z</time>
      </trkpt>
      <trkpt lat="42.4449" lon="0.06091">
        <ele>677.6</ele>
        <time>2016-07-31T10:20:57Z</time>
      </trkpt>
      <trkpt lat="42.44491" lon="0.06098">
        <ele>674.7</ele>
        <time>2016-07-31T10:20:59Z</time>
      </trkpt>
      <trkpt lat="42.44493" lon="0.06104">
        <ele>671.6</ele>
        <time>2016-07-31T10:21:01Z</time>
      </trkpt>
      <trkpt lat="42.44495" lon="0.06109">
        <ele>668.8</ele>
        <time>2016-07-31T10:21:03Z</time>
      </trkpt>
      <trkpt lat="42.44499" lon="0.06109">
        <ele>665.8</ele>
        <time>2016-07-31T10:21:05Z</time>
      </trkpt>
      <trkpt lat="42.44503" lon="0.0611">
        <ele>662.5</ele>
        <time>2016-07-31T10:21:07Z</time>
      </trkpt>
      <trkpt lat="42.44505" lon="0.06113">
        <ele>660.5</ele>
        <time>2016-07-31T10:21:09Z</time>
      </trkpt>
      <trkpt lat="42.44504" lon="0.06119">
        <ele>659.6</ele>
        <time>2016-07-31T10:21:11Z</time>
      </trkpt>
      <trkpt lat="42.44502" lon="0.06125">
        <ele>659.3</ele>
        <time>2016-07-31T10:21:13Z</time>
      </trkpt>
      <trkpt lat="42.44506" lon="0.06124">
        <ele>656.6</ele>
        <time>2016-07-31T10:21:19Z</time>
      </trkpt>
      <trkpt lat="42.44509" lon="0.06122">
        <ele>655.3</ele>
        <time>2016-07-31T10:21:22Z</time>
      </trkpt>
      <trkpt lat="42.4451" lon="0.06126">
        <ele>653.6</ele>
        <time>2016-07-31T10:21:30Z</time>
      </trkpt>
      <trkpt lat="42.44507" lon="0.0613">
        <ele>654.4</ele>
        <time>2016-07-31T10:21:32Z</time>
      </trkpt>
      <trkpt lat="42.44504" lon="0.06134">
        <ele>655.9</ele>
        <time>2016-07-31T10:21:34Z</time>
      </trkpt>
      <trkpt lat="42.44501" lon="0.06136">
        <ele>657.4</ele>
        <time>2016-07-31T10:21:36Z</time>
      </trkpt>
      <trkpt lat="42.44499" lon="0.0614">
        <ele>658</ele>
        <time>2016-07-31T10:21:38Z</time>
      </trkpt>
      <trkpt lat="42.44499" lon="0.06144">
        <ele>657.3</ele>
        <time>2016-07-31T10:21:40Z</time>
      </trkpt>
      <trkpt lat="42.445" lon="0.06149">
        <ele>655.8</ele>
        <time>2016-07-31T10:21:42Z</time>
      </trkpt>
      <trkpt lat="42.44501" lon="0.06152">
        <ele>654.3</ele>
        <time>2016-07-31T10:21:44Z</time>
      </trkpt>
      <trkpt lat="42.445" lon="0.06158">
        <ele>653.5</ele>
        <time>2016-07-31T10:21:46Z</time>
      </trkpt>
      <trkpt lat="42.44499" lon="0.06161">
        <ele>653.4</ele>
        <time>2016-07-31T10:21:47Z</time>
      </trkpt>
      <trkpt lat="42.44497" lon="0.06166">
        <ele>653.3</ele>
        <time>2016-07-31T10:21:48Z</time>
      </trkpt>
      <trkpt lat="42.44496" lon="0.0617">
        <ele>653.1</ele>
        <time>2016-07-31T10:21:49Z</time>
      </trkpt>
      <trkpt lat="42.44495" lon="0.06174">
        <ele>652.9</ele>
        <time>2016-07-31T10:21:50Z</time>
      </trkpt>
      <trkpt lat="42.44494" lon="0.06178">
        <ele>652.5</ele>
        <time>2016-07-31T10:21:51Z</time>
      </trkpt>
      <trkpt lat="42.44494" lon="0.06185">
        <ele>650.9</ele>
        <time>2016-07-31T10:21:53Z</time>
      </trkpt>
      <trkpt lat="42.44494" lon="0.06189">
        <ele>650.2</ele>
        <time>2016-07-31T10:21:54Z</time>
      </trkpt>
      <trkpt lat="42.44493" lon="0.06193">
        <ele>649.8</ele>
        <time>2016-07-31T10:21:55Z</time>
      </trkpt>
      <trkpt lat="42.44492" lon="0.06197">
        <ele>649.3</ele>
        <time>2016-07-31T10:21:56Z</time>
      </trkpt>
      <trkpt lat="42.4449" lon="0.06202">
        <ele>649.1</ele>
        <time>2016-07-31T10:21:57Z</time>
      </trkpt>
      <trkpt lat="42.44489" lon="0.06206">
        <ele>649.1</ele>
        <time>2016-07-31T10:21:58Z</time>
      </trkpt>
      <trkpt lat="42.44487" lon="0.0621">
        <ele>649</ele>
        <time>2016-07-31T10:21:59Z</time>
      </trkpt>
      <trkpt lat="42.44485" lon="0.06213">
        <ele>649.3</ele>
        <time>2016-07-31T10:22:00Z</time>
      </trkpt>
      <trkpt lat="42.44483" lon="0.06218">
        <ele>649.2</ele>
        <time>2016-07-31T10:22:01Z</time>
      </trkpt>
      <trkpt lat="42.44481" lon="0.06223">
        <ele>648.8</ele>
        <time>2016-07-31T10:22:02Z</time>
      </trkpt>
      <trkpt lat="42.44478" lon="0.06228">
        <ele>648.7</ele>
        <time>2016-07-31T10:22:03Z</time>
      </trkpt>
      <trkpt lat="42.44476" lon="0.06234">
        <ele>648.4</ele>
        <time>2016-07-31T10:22:04Z</time>
      </trkpt>
      <trkpt lat="42.44475" lon="0.06239">
        <ele>647.4</ele>
        <time>2016-07-31T10:22:05Z</time>
      </trkpt>
      <trkpt lat="42.44474" lon="0.06242">
        <ele>646.3</ele>
        <time>2016-07-31T10:22:06Z</time>
      </trkpt>
      <trkpt lat="42.44475" lon="0.06246">
        <ele>644.6</ele>
        <time>2016-07-31T10:22:07Z</time>
      </trkpt>
      <trkpt lat="42.44477" lon="0.0625">
        <ele>642.6</ele>
        <time>2016-07-31T10:22:08Z</time>
      </trkpt>
      <trkpt lat="42.44479" lon="0.06253">
        <ele>640.5</ele>
        <time>2016-07-31T10:22:09Z</time>
      </trkpt>
      <trkpt lat="42.44482" lon="0.06258">
        <ele>637.2</ele>
        <time>2016-07-31T10:22:11Z</time>
      </trkpt>
      <trkpt lat="42.44484" lon="0.06261">
        <ele>635.4</ele>
        <time>2016-07-31T10:22:12Z</time>
      </trkpt>
      <trkpt lat="42.44485" lon="0.06265">
        <ele>633.8</ele>
        <time>2016-07-31T10:22:13Z</time>
      </trkpt>
      <trkpt lat="42.44485" lon="0.0627">
        <ele>632.2</ele>
        <time>2016-07-31T10:22:14Z</time>
      </trkpt>
      <trkpt lat="42.44485" lon="0.06275">
        <ele>630.9</ele>
        <time>2016-07-31T10:22:15Z</time>
      </trkpt>
      <trkpt lat="42.44483" lon="0.06281">
        <ele>629.8</ele>
        <time>2016-07-31T10:22:16Z</time>
      </trkpt>
      <trkpt lat="42.44482" lon="0.06287">
        <ele>628.8</ele>
        <time>2016-07-31T10:22:17Z</time>
      </trkpt>
      <trkpt lat="42.4448" lon="0.06293">
        <ele>627.8</ele>
        <time>2016-07-31T10:22:18Z</time>
      </trkpt>
      <trkpt lat="42.44478" lon="0.06298">
        <ele>627.3</ele>
        <time>2016-07-31T10:22:19Z</time>
      </trkpt>
      <trkpt lat="42.44476" lon="0.06305">
        <ele>626.6</ele>
        <time>2016-07-31T10:22:20Z</time>
      </trkpt>
      <trkpt lat="42.44475" lon="0.06311">
        <ele>625.8</ele>
        <time>2016-07-31T10:22:21Z</time>
      </trkpt>
      <trkpt lat="42.44473" lon="0.06316">
        <ele>625.1</ele>
        <time>2016-07-31T10:22:22Z</time>
      </trkpt>
      <trkpt lat="42.44471" lon="0.06321">
        <ele>624.6</ele>
        <time>2016-07-31T10:22:23Z</time>
      </trkpt>
      <trkpt lat="42.4447" lon="0.06326">
        <ele>623.8</ele>
        <time>2016-07-31T10:22:24Z</time>
      </trkpt>
      <trkpt lat="42.44468" lon="0.06331">
        <ele>622.9</ele>
        <time>2016-07-31T10:22:25Z</time>
      </trkpt>
      <trkpt lat="42.44467" lon="0.06337">
        <ele>621.9</ele>
        <time>2016-07-31T10:22:26Z</time>
      </trkpt>
      <trkpt lat="42.44466" lon="0.06342">
        <ele>620.8</ele>
        <time>2016-07-31T10:22:27Z</time>
      </trkpt>
      <trkpt lat="42.44464" lon="0.06348">
        <ele>619.8</ele>
        <time>2016-07-31T10:22:28Z</time>
      </trkpt>
      <trkpt lat="42.44463" lon="0.06354">
        <ele>618.6</ele>
        <time>2016-07-31T10:22:29Z</time>
      </trkpt>
      <trkpt lat="42.44462" lon="0.0636">
        <ele>617.3</ele>
        <time>2016-07-31T10:22:30Z</time>
      </trkpt>
      <trkpt lat="42.4446" lon="0.06366">
        <ele>616</ele>
        <time>2016-07-31T10:22:31Z</time>
      </trkpt>
      <trkpt lat="42.44459" lon="0.06372">
        <ele>614.7</ele>
        <time>2016-07-31T10:22:32Z</time>
      </trkpt>
      <trkpt lat="42.44458" lon="0.06377">
        <ele>613.6</ele>
        <time>2016-07-31T10:22:33Z</time>
      </trkpt>
      <trkpt lat="42.44457" lon="0.06383">
        <ele>613</ele>
        <time>2016-07-31T10:22:34Z</time>
      </trkpt>
      <trkpt lat="42.44456" lon="0.06388">
        <ele>612.4</ele>
        <time>2016-07-31T10:22:35Z</time>
      </trkpt>
      <trkpt lat="42.44455" lon="0.06394">
        <ele>611.7</ele>
        <time>2016-07-31T10:22:36Z</time>
      </trkpt>
      <trkpt lat="42.44454" lon="0.064">
        <ele>611</ele>
        <time>2016-07-31T10:22:37Z</time>
      </trkpt>
      <trkpt lat="42.44453" lon="0.06405">
        <ele>610.3</ele>
        <time>2016-07-31T10:22:38Z</time>
      </trkpt>
      <trkpt lat="42.44451" lon="0.06411">
        <ele>609.7</ele>
        <time>2016-07-31T10:22:39Z</time>
      </trkpt>
      <trkpt lat="42.44449" lon="0.06416">
        <ele>609.2</ele>
        <time>2016-07-31T10:22:40Z</time>
      </trkpt>
      <trkpt lat="42.44447" lon="0.06421">
        <ele>608.7</ele>
        <time>2016-07-31T10:22:41Z</time>
      </trkpt>
      <trkpt lat="42.44445" lon="0.06426">
        <ele>608.2</ele>
        <time>2016-07-31T10:22:42Z</time>
      </trkpt>
      <trkpt lat="42.44443" lon="0.06431">
        <ele>607.6</ele>
        <time>2016-07-31T10:22:43Z</time>
      </trkpt>
      <trkpt lat="42.44441" lon="0.06437">
        <ele>606.9</ele>
        <time>2016-07-31T10:22:44Z</time>
      </trkpt>
      <trkpt lat="42.44439" lon="0.06443">
        <ele>606.2</ele>
        <time>2016-07-31T10:22:45Z</time>
      </trkpt>
      <trkpt lat="42.44437" lon="0.06448">
        <ele>605.4</ele>
        <time>2016-07-31T10:22:46Z</time>
      </trkpt>
      <trkpt lat="42.44435" lon="0.06454">
        <ele>604.6</ele>
        <time>2016-07-31T10:22:47Z</time>
      </trkpt>
      <trkpt lat="42.44432" lon="0.06459">
        <ele>603.9</ele>
        <time>2016-07-31T10:22:48Z</time>
      </trkpt>
      <trkpt lat="42.4443" lon="0.06465">
        <ele>603.8</ele>
        <time>2016-07-31T10:22:49Z</time>
      </trkpt>
      <trkpt lat="42.44427" lon="0.0647">
        <ele>603.8</ele>
        <time>2016-07-31T10:22:50Z</time>
      </trkpt>
      <trkpt lat="42.44425" lon="0.06476">
        <ele>603.7</ele>
        <time>2016-07-31T10:22:51Z</time>
      </trkpt>
      <trkpt lat="42.44422" lon="0.06481">
        <ele>603.5</ele>
        <time>2016-07-31T10:22:52Z</time>
      </trkpt>
      <trkpt lat="42.44419" lon="0.06486">
        <ele>603.4</ele>
        <time>2016-07-31T10:22:53Z</time>
      </trkpt>
      <trkpt lat="42.44417" lon="0.06491">
        <ele>603.3</ele>
        <time>2016-07-31T10:22:54Z</time>
      </trkpt>
      <trkpt lat="42.44414" lon="0.06496">
        <ele>603.1</ele>
        <time>2016-07-31T10:22:55Z</time>
      </trkpt>
      <trkpt lat="42.44411" lon="0.06501">
        <ele>602.9</ele>
        <time>2016-07-31T10:22:56Z</time>
      </trkpt>
      <trkpt lat="42.44409" lon="0.06507">
        <ele>602.6</ele>
        <time>2016-07-31T10:22:57Z</time>
      </trkpt>
      <trkpt lat="42.44406" lon="0.06512">
        <ele>602.4</ele>
        <time>2016-07-31T10:22:58Z</time>
      </trkpt>
      <trkpt lat="42.44403" lon="0.06517">
        <ele>602.1</ele>
        <time>2016-07-31T10:22:59Z</time>
      </trkpt>
      <trkpt lat="42.444" lon="0.06522">
        <ele>601.8</ele>
        <time>2016-07-31T10:23:00Z</time>
      </trkpt>
      <trkpt lat="42.44398" lon="0.06527">
        <ele>601.6</ele>
        <time>2016-07-31T10:23:01Z</time>
      </trkpt>
      <trkpt lat="42.44395" lon="0.06531">
        <ele>601.2</ele>
        <time>2016-07-31T10:23:02Z</time>
      </trkpt>
      <trkpt lat="42.44393" lon="0.06535">
        <ele>601</ele>
        <time>2016-07-31T10:23:03Z</time>
      </trkpt>
      <trkpt lat="42.44391" lon="0.06539">
        <ele>600.7</ele>
        <time>2016-07-31T10:23:04Z</time>
      </trkpt>
      <trkpt lat="42.44387" lon="0.06543">
        <ele>600.6</ele>
        <time>2016-07-31T10:23:06Z</time>
      </trkpt>
      <trkpt lat="42.44384" lon="0.06543">
        <ele>600.9</ele>
        <time>2016-07-31T10:23:07Z</time>
      </trkpt>
      <trkpt lat="42.4438" lon="0.06542">
        <ele>601.4</ele>
        <time>2016-07-31T10:23:08Z</time>
      </trkpt>
      <trkpt lat="42.44377" lon="0.06541">
        <ele>601.9</ele>
        <time>2016-07-31T10:23:09Z</time>
      </trkpt>
      <trkpt lat="42.44373" lon="0.06541">
        <ele>602.2</ele>
        <time>2016-07-31T10:23:10Z</time>
      </trkpt>
      <trkpt lat="42.4437" lon="0.06542">
        <ele>602.4</ele>
        <time>2016-07-31T10:23:11Z</time>
      </trkpt>
      <trkpt lat="42.44367" lon="0.06542">
        <ele>602.5</ele>
        <time>2016-07-31T10:23:12Z</time>
      </trkpt>
      <trkpt lat="42.44362" lon="0.06544">
        <ele>602.7</ele>
        <time>2016-07-31T10:23:14Z</time>
      </trkpt>
      <trkpt lat="42.44357" lon="0.06547">
        <ele>602.9</ele>
        <time>2016-07-31T10:23:16Z</time>
      </trkpt>
      <trkpt lat="42.44353" lon="0.06549">
        <ele>603</ele>
        <time>2016-07-31T10:23:18Z</time>
      </trkpt>
      <trkpt lat="42.4435" lon="0.06552">
        <ele>603</ele>
        <time>2016-07-31T10:23:20Z</time>
      </trkpt>
      <trkpt lat="42.44346" lon="0.06555">
        <ele>603.1</ele>
        <time>2016-07-31T10:23:22Z</time>
      </trkpt>
      <trkpt lat="42.44343" lon="0.06558">
        <ele>603</ele>
        <time>2016-07-31T10:23:24Z</time>
      </trkpt>
      <trkpt lat="42.44341" lon="0.0656">
        <ele>603</ele>
        <time>2016-07-31T10:23:26Z</time>
      </trkpt>
      <trkpt lat="42.44338" lon="0.06563">
        <ele>603</ele>
        <time>2016-07-31T10:23:29Z</time>
      </trkpt>
      <trkpt lat="42.44339" lon="0.06567">
        <ele>602.7</ele>
        <time>2016-07-31T10:23:44Z</time>
      </trkpt>
      <trkpt lat="42.44337" lon="0.06563">
        <ele>603.1</ele>
        <time>2016-07-31T10:28:45Z</time>
      </trkpt>
      <trkpt lat="42.44333" lon="0.06561">
        <ele>603.5</ele>
        <time>2016-07-31T10:28:48Z</time>
      </trkpt>
      <trkpt lat="42.44329" lon="0.06562">
        <ele>603.7</ele>
        <time>2016-07-31T10:28:50Z</time>
      </trkpt>
      <trkpt lat="42.44325" lon="0.06565">
        <ele>603.7</ele>
        <time>2016-07-31T10:28:52Z</time>
      </trkpt>
      <trkpt lat="42.44322" lon="0.06568">
        <ele>603.7</ele>
        <time>2016-07-31T10:28:54Z</time>
      </trkpt>
      <trkpt lat="42.44318" lon="0.06571">
        <ele>603.8</ele>
        <time>2016-07-31T10:28:56Z</time>
      </trkpt>
      <trkpt lat="42.44314" lon="0.06573">
        <ele>603.8</ele>
        <time>2016-07-31T10:28:58Z</time>
      </trkpt>
      <trkpt lat="42.4431" lon="0.06576">
        <ele>603.8</ele>
        <time>2016-07-31T10:29:00Z</time>
      </trkpt>
      <trkpt lat="42.44308" lon="0.06579">
        <ele>603.8</ele>
        <time>2016-07-31T10:29:01Z</time>
      </trkpt>
      <trkpt lat="42.44306" lon="0.06581">
        <ele>603.7</ele>
        <time>2016-07-31T10:29:02Z</time>
      </trkpt>
      <trkpt lat="42.44304" lon="0.06584">
        <ele>603.7</ele>
        <time>2016-07-31T10:29:03Z</time>
      </trkpt>
      <trkpt lat="42.44301" lon="0.06586">
        <ele>603.7</ele>
        <time>2016-07-31T10:29:04Z</time>
      </trkpt>
      <trkpt lat="42.44299" lon="0.06588">
        <ele>603.6</ele>
        <time>2016-07-31T10:29:05Z</time>
      </trkpt>
      <trkpt lat="42.44296" lon="0.06591">
        <ele>603.6</ele>
        <time>2016-07-31T10:29:06Z</time>
      </trkpt>
      <trkpt lat="42.44294" lon="0.06593">
        <ele>603.6</ele>
        <time>2016-07-31T10:29:07Z</time>
      </trkpt>
      <trkpt lat="42.44291" lon="0.06595">
        <ele>603.5</ele>
        <time>2016-07-31T10:29:08Z</time>
      </trkpt>
      <trkpt lat="42.44289" lon="0.06598">
        <ele>603.3</ele>
        <time>2016-07-31T10:29:09Z</time>
      </trkpt>
      <trkpt lat="42.44286" lon="0.066">
        <ele>603.1</ele>
        <time>2016-07-31T10:29:10Z</time>
      </trkpt>
      <trkpt lat="42.44284" lon="0.06602">
        <ele>602.9</ele>
        <time>2016-07-31T10:29:11Z</time>
      </trkpt>
      <trkpt lat="42.44281" lon="0.06604">
        <ele>602.7</ele>
        <time>2016-07-31T10:29:12Z</time>
      </trkpt>
      <trkpt lat="42.44279" lon="0.06607">
        <ele>602.5</ele>
        <time>2016-07-31T10:29:13Z</time>
      </trkpt>
      <trkpt lat="42.44276" lon="0.06609">
        <ele>602.2</ele>
        <time>2016-07-31T10:29:14Z</time>
      </trkpt>
      <trkpt lat="42.44273" lon="0.06612">
        <ele>602</ele>
        <time>2016-07-31T10:29:15Z</time>
      </trkpt>
      <trkpt lat="42.44271" lon="0.06615">
        <ele>601.7</ele>
        <time>2016-07-31T10:29:16Z</time>
      </trkpt>
      <trkpt lat="42.44268" lon="0.06618">
        <ele>601.4</ele>
        <time>2016-07-31T10:29:17Z</time>
      </trkpt>
      <trkpt lat="42.44265" lon="0.06621">
        <ele>601</ele>
        <time>2016-07-31T10:29:18Z</time>
      </trkpt>
      <trkpt lat="42.44261" lon="0.06625">
        <ele>600.6</ele>
        <time>2016-07-31T10:29:19Z</time>
      </trkpt>
      <trkpt lat="42.44258" lon="0.06628">
        <ele>600.4</ele>
        <time>2016-07-31T10:29:20Z</time>
      </trkpt>
      <trkpt lat="42.44255" lon="0.06632">
        <ele>600.1</ele>
        <time>2016-07-31T10:29:21Z</time>
      </trkpt>
      <trkpt lat="42.44252" lon="0.06635">
        <ele>599.9</ele>
        <time>2016-07-31T10:29:22Z</time>
      </trkpt>
      <trkpt lat="42.44249" lon="0.06639">
        <ele>599.6</ele>
        <time>2016-07-31T10:29:23Z</time>
      </trkpt>
      <trkpt lat="42.44246" lon="0.06642">
        <ele>599.4</ele>
        <time>2016-07-31T10:29:24Z</time>
      </trkpt>
      <trkpt lat="42.44242" lon="0.06646">
        <ele>599.1</ele>
        <time>2016-07-31T10:29:25Z</time>
      </trkpt>
      <trkpt lat="42.44238" lon="0.06649">
        <ele>598.9</ele>
        <time>2016-07-31T10:29:26Z</time>
      </trkpt>
      <trkpt lat="42.44235" lon="0.06652">
        <ele>598.7</ele>
        <time>2016-07-31T10:29:27Z</time>
      </trkpt>
      <trkpt lat="42.44231" lon="0.06655">
        <ele>598.5</ele>
        <time>2016-07-31T10:29:28Z</time>
      </trkpt>
      <trkpt lat="42.44228" lon="0.06659">
        <ele>598.3</ele>
        <time>2016-07-31T10:29:29Z</time>
      </trkpt>
      <trkpt lat="42.44224" lon="0.06662">
        <ele>598.2</ele>
        <time>2016-07-31T10:29:30Z</time>
      </trkpt>
      <trkpt lat="42.4422" lon="0.06665">
        <ele>598</ele>
        <time>2016-07-31T10:29:31Z</time>
      </trkpt>
      <trkpt lat="42.44217" lon="0.06668">
        <ele>597.9</ele>
        <time>2016-07-31T10:29:32Z</time>
      </trkpt>
      <trkpt lat="42.44212" lon="0.0667">
        <ele>597.8</ele>
        <time>2016-07-31T10:29:33Z</time>
      </trkpt>
      <trkpt lat="42.44208" lon="0.06671">
        <ele>597.8</ele>
        <time>2016-07-31T10:29:34Z</time>
      </trkpt>
      <trkpt lat="42.44204" lon="0.06673">
        <ele>597.7</ele>
        <time>2016-07-31T10:29:35Z</time>
      </trkpt>
      <trkpt lat="42.442" lon="0.06674">
        <ele>597.7</ele>
        <time>2016-07-31T10:29:36Z</time>
      </trkpt>
      <trkpt lat="42.44195" lon="0.06675">
        <ele>597.6</ele>
        <time>2016-07-31T10:29:37Z</time>
      </trkpt>
      <trkpt lat="42.44191" lon="0.06675">
        <ele>597.6</ele>
        <time>2016-07-31T10:29:38Z</time>
      </trkpt>
      <trkpt lat="42.44187" lon="0.06676">
        <ele>597.6</ele>
        <time>2016-07-31T10:29:39Z</time>
      </trkpt>
      <trkpt lat="42.44183" lon="0.06677">
        <ele>597.5</ele>
        <time>2016-07-31T10:29:40Z</time>
      </trkpt>
      <trkpt lat="42.44179" lon="0.06678">
        <ele>597.5</ele>
        <time>2016-07-31T10:29:41Z</time>
      </trkpt>
      <trkpt lat="42.44175" lon="0.0668">
        <ele>597.4</ele>
        <time>2016-07-31T10:29:42Z</time>
      </trkpt>
      <trkpt lat="42.44171" lon="0.06681">
        <ele>597.3</ele>
        <time>2016-07-31T10:29:43Z</time>
      </trkpt>
      <trkpt lat="42.44167" lon="0.06682">
        <ele>597.3</ele>
        <time>2016-07-31T10:29:44Z</time>
      </trkpt>
      <trkpt lat="42.44163" lon="0.06683">
        <ele>597.2</ele>
        <time>2016-07-31T10:29:45Z</time>
      </trkpt>
      <trkpt lat="42.44159" lon="0.06683">
        <ele>597.2</ele>
        <time>2016-07-31T10:29:46Z</time>
      </trkpt>
      <trkpt lat="42.44155" lon="0.06683">
        <ele>597.2</ele>
        <time>2016-07-31T10:29:47Z</time>
      </trkpt>
      <trkpt lat="42.4415" lon="0.06683">
        <ele>597.1</ele>
        <time>2016-07-31T10:29:48Z</time>
      </trkpt>
      <trkpt lat="42.44146" lon="0.06684">
        <ele>597.1</ele>
        <time>2016-07-31T10:29:49Z</time>
      </trkpt>
      <trkpt lat="42.44141" lon="0.06684">
        <ele>597.1</ele>
        <time>2016-07-31T10:29:50Z</time>
      </trkpt>
      <trkpt lat="42.44137" lon="0.06685">
        <ele>597</ele>
        <time>2016-07-31T10:29:51Z</time>
      </trkpt>
      <trkpt lat="42.44132" lon="0.06686">
        <ele>596.9</ele>
        <time>2016-07-31T10:29:52Z</time>
      </trkpt>
      <trkpt lat="42.44128" lon="0.06687">
        <ele>596.8</ele>
        <time>2016-07-31T10:29:53Z</time>
      </trkpt>
      <trkpt lat="42.44123" lon="0.06687">
        <ele>596.8</ele>
        <time>2016-07-31T10:29:54Z</time>
      </trkpt>
      <trkpt lat="42.44119" lon="0.06687">
        <ele>596.9</ele>
        <time>2016-07-31T10:29:55Z</time>
      </trkpt>
      <trkpt lat="42.44114" lon="0.06686">
        <ele>597.1</ele>
        <time>2016-07-31T10:29:56Z</time>
      </trkpt>
      <trkpt lat="42.4411" lon="0.06685">
        <ele>597.2</ele>
        <time>2016-07-31T10:29:57Z</time>
      </trkpt>
      <trkpt lat="42.44105" lon="0.06684">
        <ele>597.3</ele>
        <time>2016-07-31T10:29:58Z</time>
      </trkpt>
      <trkpt lat="42.44101" lon="0.06684">
        <ele>597.4</ele>
        <time>2016-07-31T10:29:59Z</time>
      </trkpt>
      <trkpt lat="42.44096" lon="0.06683">
        <ele>597.6</ele>
        <time>2016-07-31T10:30:00Z</time>
      </trkpt>
      <trkpt lat="42.44091" lon="0.06683">
        <ele>597.7</ele>
        <time>2016-07-31T10:30:01Z</time>
      </trkpt>
      <trkpt lat="42.44085" lon="0.06683">
        <ele>597.8</ele>
        <time>2016-07-31T10:30:02Z</time>
      </trkpt>
      <trkpt lat="42.44079" lon="0.06682">
        <ele>597.9</ele>
        <time>2016-07-31T10:30:03Z</time>
      </trkpt>
      <trkpt lat="42.44072" lon="0.06683">
        <ele>598</ele>
        <time>2016-07-31T10:30:04Z</time>
      </trkpt>
      <trkpt lat="42.44065" lon="0.06684">
        <ele>598</ele>
        <time>2016-07-31T10:30:05Z</time>
      </trkpt>
      <trkpt lat="42.44057" lon="0.06685">
        <ele>598</ele>
        <time>2016-07-31T10:30:06Z</time>
      </trkpt>
      <trkpt lat="42.4405" lon="0.06686">
        <ele>598</ele>
        <time>2016-07-31T10:30:07Z</time>
      </trkpt>
      <trkpt lat="42.44041" lon="0.06686">
        <ele>598.2</ele>
        <time>2016-07-31T10:30:08Z</time>
      </trkpt>
      <trkpt lat="42.44035" lon="0.06685">
        <ele>598.5</ele>
        <time>2016-07-31T10:30:09Z</time>
      </trkpt>
      <trkpt lat="42.44031" lon="0.06686">
        <ele>598.6</ele>
        <time>2016-07-31T10:30:10Z</time>
      </trkpt>
      <trkpt lat="42.44027" lon="0.06686">
        <ele>598.7</ele>
        <time>2016-07-31T10:30:11Z</time>
      </trkpt>
      <trkpt lat="42.44024" lon="0.06685">
        <ele>598.9</ele>
        <time>2016-07-31T10:30:12Z</time>
      </trkpt>
      <trkpt lat="42.44021" lon="0.06684">
        <ele>599.2</ele>
        <time>2016-07-31T10:30:13Z</time>
      </trkpt>
      <trkpt lat="42.44018" lon="0.06683">
        <ele>599.4</ele>
        <time>2016-07-31T10:30:14Z</time>
      </trkpt>
      <trkpt lat="42.44015" lon="0.06683">
        <ele>599.5</ele>
        <time>2016-07-31T10:30:15Z</time>
      </trkpt>
      <trkpt lat="42.44012" lon="0.06682">
        <ele>599.7</ele>
        <time>2016-07-31T10:30:16Z</time>
      </trkpt>
      <trkpt lat="42.44008" lon="0.06682">
        <ele>599.8</ele>
        <time>2016-07-31T10:30:17Z</time>
      </trkpt>
      <trkpt lat="42.44005" lon="0.06683">
        <ele>599.9</ele>
        <time>2016-07-31T10:30:18Z</time>
      </trkpt>
      <trkpt lat="42.44002" lon="0.06684">
        <ele>599.9</ele>
        <time>2016-07-31T10:30:19Z</time>
      </trkpt>
      <trkpt lat="42.43998" lon="0.06685">
        <ele>599.9</ele>
        <time>2016-07-31T10:30:20Z</time>
      </trkpt>
      <trkpt lat="42.43992" lon="0.06688">
        <ele>599.9</ele>
        <time>2016-07-31T10:30:21Z</time>
      </trkpt>
      <trkpt lat="42.43986" lon="0.06692">
        <ele>599.7</ele>
        <time>2016-07-31T10:30:22Z</time>
      </trkpt>
      <trkpt lat="42.43981" lon="0.06696">
        <ele>599.4</ele>
        <time>2016-07-31T10:30:23Z</time>
      </trkpt>
      <trkpt lat="42.43974" lon="0.06702">
        <ele>599.2</ele>
        <time>2016-07-31T10:30:24Z</time>
      </trkpt>
      <trkpt lat="42.43968" lon="0.06705">
        <ele>599</ele>
        <time>2016-07-31T10:30:25Z</time>
      </trkpt>
      <trkpt lat="42.43961" lon="0.06708">
        <ele>598.9</ele>
        <time>2016-07-31T10:30:26Z</time>
      </trkpt>
      <trkpt lat="42.43955" lon="0.06711">
        <ele>598.5</ele>
        <time>2016-07-31T10:30:27Z</time>
      </trkpt>
      <trkpt lat="42.43948" lon="0.06714">
        <ele>598</ele>
        <time>2016-07-31T10:30:28Z</time>
      </trkpt>
      <trkpt lat="42.43941" lon="0.06716">
        <ele>597.6</ele>
        <time>2016-07-31T10:30:29Z</time>
      </trkpt>
      <trkpt lat="42.43934" lon="0.06718">
        <ele>597.2</ele>
        <time>2016-07-31T10:30:30Z</time>
      </trkpt>
      <trkpt lat="42.43927" lon="0.0672">
        <ele>596.9</ele>
        <time>2016-07-31T10:30:31Z</time>
      </trkpt>
      <trkpt lat="42.4392" lon="0.06721">
        <ele>596.6</ele>
        <time>2016-07-31T10:30:32Z</time>
      </trkpt>
      <trkpt lat="42.43914" lon="0.06723">
        <ele>596.3</ele>
        <time>2016-07-31T10:30:33Z</time>
      </trkpt>
      <trkpt lat="42.43907" lon="0.06724">
        <ele>596.1</ele>
        <time>2016-07-31T10:30:34Z</time>
      </trkpt>
      <trkpt lat="42.43901" lon="0.06725">
        <ele>595.9</ele>
        <time>2016-07-31T10:30:35Z</time>
      </trkpt>
      <trkpt lat="42.43895" lon="0.06726">
        <ele>595.8</ele>
        <time>2016-07-31T10:30:36Z</time>
      </trkpt>
      <trkpt lat="42.43889" lon="0.06727">
        <ele>595.6</ele>
        <time>2016-07-31T10:30:37Z</time>
      </trkpt>
      <trkpt lat="42.43883" lon="0.06727">
        <ele>595.5</ele>
        <time>2016-07-31T10:30:38Z</time>
      </trkpt>
      <trkpt lat="42.43877" lon="0.06728">
        <ele>595.3</ele>
        <time>2016-07-31T10:30:39Z</time>
      </trkpt>
      <trkpt lat="42.43872" lon="0.0673">
        <ele>595.5</ele>
        <time>2016-07-31T10:30:40Z</time>
      </trkpt>
      <trkpt lat="42.43867" lon="0.06732">
        <ele>596.1</ele>
        <time>2016-07-31T10:30:41Z</time>
      </trkpt>
      <trkpt lat="42.43862" lon="0.06734">
        <ele>596.5</ele>
        <time>2016-07-31T10:30:42Z</time>
      </trkpt>
      <trkpt lat="42.43857" lon="0.06734">
        <ele>597.1</ele>
        <time>2016-07-31T10:30:43Z</time>
      </trkpt>
      <trkpt lat="42.43853" lon="0.06736">
        <ele>597.6</ele>
        <time>2016-07-31T10:30:44Z</time>
      </trkpt>
      <trkpt lat="42.43848" lon="0.06737">
        <ele>598.1</ele>
        <time>2016-07-31T10:30:45Z</time>
      </trkpt>
      <trkpt lat="42.43844" lon="0.06738">
        <ele>598.5</ele>
        <time>2016-07-31T10:30:46Z</time>
      </trkpt>
      <trkpt lat="42.4384" lon="0.06738">
        <ele>598.9</ele>
        <time>2016-07-31T10:30:47Z</time>
      </trkpt>
      <trkpt lat="42.43836" lon="0.06738">
        <ele>599.6</ele>
        <time>2016-07-31T10:30:48Z</time>
      </trkpt>
      <trkpt lat="42.43831" lon="0.06735">
        <ele>600.4</ele>
        <time>2016-07-31T10:30:49Z</time>
      </trkpt>
      <trkpt lat="42.43827" lon="0.0673">
        <ele>601.4</ele>
        <time>2016-07-31T10:30:50Z</time>
      </trkpt>
      <trkpt lat="42.43824" lon="0.06724">
        <ele>602.6</ele>
        <time>2016-07-31T10:30:51Z</time>
      </trkpt>
      <trkpt lat="42.43821" lon="0.06718">
        <ele>603.6</ele>
        <time>2016-07-31T10:30:52Z</time>
      </trkpt>
      <trkpt lat="42.43819" lon="0.06713">
        <ele>604.6</ele>
        <time>2016-07-31T10:30:53Z</time>
      </trkpt>
      <trkpt lat="42.43816" lon="0.06709">
        <ele>605.4</ele>
        <time>2016-07-31T10:30:54Z</time>
      </trkpt>
      <trkpt lat="42.43813" lon="0.06706">
        <ele>606.1</ele>
        <time>2016-07-31T10:30:55Z</time>
      </trkpt>
      <trkpt lat="42.4381" lon="0.06706">
        <ele>606.5</ele>
        <time>2016-07-31T10:30:56Z</time>
      </trkpt>
      <trkpt lat="42.43805" lon="0.06708">
        <ele>607.1</ele>
        <time>2016-07-31T10:30:57Z</time>
      </trkpt>
      <trkpt lat="42.43803" lon="0.06713">
        <ele>606.8</ele>
        <time>2016-07-31T10:30:58Z</time>
      </trkpt>
      <trkpt lat="42.43801" lon="0.06719">
        <ele>606.3</ele>
        <time>2016-07-31T10:30:59Z</time>
      </trkpt>
      <trkpt lat="42.438" lon="0.06727">
        <ele>605.5</ele>
        <time>2016-07-31T10:31:00Z</time>
      </trkpt>
      <trkpt lat="42.43798" lon="0.06734">
        <ele>604.9</ele>
        <time>2016-07-31T10:31:01Z</time>
      </trkpt>
      <trkpt lat="42.43796" lon="0.06741">
        <ele>604.1</ele>
        <time>2016-07-31T10:31:02Z</time>
      </trkpt>
      <trkpt lat="42.43794" lon="0.06747">
        <ele>603.5</ele>
        <time>2016-07-31T10:31:03Z</time>
      </trkpt>
      <trkpt lat="42.43792" lon="0.06754">
        <ele>602.9</ele>
        <time>2016-07-31T10:31:04Z</time>
      </trkpt>
      <trkpt lat="42.43789" lon="0.06759">
        <ele>603.1</ele>
        <time>2016-07-31T10:31:05Z</time>
      </trkpt>
      <trkpt lat="42.43787" lon="0.06763">
        <ele>603.4</ele>
        <time>2016-07-31T10:31:06Z</time>
      </trkpt>
      <trkpt lat="42.43784" lon="0.06765">
        <ele>604</ele>
        <time>2016-07-31T10:31:07Z</time>
      </trkpt>
      <trkpt lat="42.4378" lon="0.06767">
        <ele>605</ele>
        <time>2016-07-31T10:31:08Z</time>
      </trkpt>
      <trkpt lat="42.43775" lon="0.06769">
        <ele>606.1</ele>
        <time>2016-07-31T10:31:09Z</time>
      </trkpt>
      <trkpt lat="42.43771" lon="0.06771">
        <ele>607.1</ele>
        <time>2016-07-31T10:31:10Z</time>
      </trkpt>
      <trkpt lat="42.43767" lon="0.06773">
        <ele>608.2</ele>
        <time>2016-07-31T10:31:11Z</time>
      </trkpt>
      <trkpt lat="42.43762" lon="0.06774">
        <ele>609.6</ele>
        <time>2016-07-31T10:31:12Z</time>
      </trkpt>
      <trkpt lat="42.43758" lon="0.06776">
        <ele>610.7</ele>
        <time>2016-07-31T10:31:13Z</time>
      </trkpt>
      <trkpt lat="42.43753" lon="0.06779">
        <ele>611.8</ele>
        <time>2016-07-31T10:31:14Z</time>
      </trkpt>
      <trkpt lat="42.43748" lon="0.06783">
        <ele>612.7</ele>
        <time>2016-07-31T10:31:15Z</time>
      </trkpt>
      <trkpt lat="42.43744" lon="0.06787">
        <ele>613.5</ele>
        <time>2016-07-31T10:31:16Z</time>
      </trkpt>
      <trkpt lat="42.4374" lon="0.06791">
        <ele>614.2</ele>
        <time>2016-07-31T10:31:17Z</time>
      </trkpt>
      <trkpt lat="42.43737" lon="0.06795">
        <ele>614.9</ele>
        <time>2016-07-31T10:31:18Z</time>
      </trkpt>
      <trkpt lat="42.43734" lon="0.068">
        <ele>615.5</ele>
        <time>2016-07-31T10:31:19Z</time>
      </trkpt>
      <trkpt lat="42.4373" lon="0.06805">
        <ele>616.5</ele>
        <time>2016-07-31T10:31:20Z</time>
      </trkpt>
      <trkpt lat="42.43727" lon="0.06809">
        <ele>617.3</ele>
        <time>2016-07-31T10:31:21Z</time>
      </trkpt>
      <trkpt lat="42.43723" lon="0.06815">
        <ele>618</ele>
        <time>2016-07-31T10:31:22Z</time>
      </trkpt>
      <trkpt lat="42.4372" lon="0.0682">
        <ele>618.9</ele>
        <time>2016-07-31T10:31:23Z</time>
      </trkpt>
      <trkpt lat="42.43717" lon="0.06825">
        <ele>619.7</ele>
        <time>2016-07-31T10:31:24Z</time>
      </trkpt>
      <trkpt lat="42.43714" lon="0.0683">
        <ele>620.5</ele>
        <time>2016-07-31T10:31:25Z</time>
      </trkpt>
      <trkpt lat="42.43712" lon="0.06835">
        <ele>621.1</ele>
        <time>2016-07-31T10:31:26Z</time>
      </trkpt>
      <trkpt lat="42.43709" lon="0.0684">
        <ele>622</ele>
        <time>2016-07-31T10:31:27Z</time>
      </trkpt>
      <trkpt lat="42.43707" lon="0.06846">
        <ele>623</ele>
        <time>2016-07-31T10:31:28Z</time>
      </trkpt>
      <trkpt lat="42.43704" lon="0.06852">
        <ele>624.5</ele>
        <time>2016-07-31T10:31:29Z</time>
      </trkpt>
      <trkpt lat="42.43703" lon="0.06857">
        <ele>625.5</ele>
        <time>2016-07-31T10:31:30Z</time>
      </trkpt>
      <trkpt lat="42.43701" lon="0.06861">
        <ele>626.7</ele>
        <time>2016-07-31T10:31:31Z</time>
      </trkpt>
      <trkpt lat="42.43699" lon="0.06866">
        <ele>627.5</ele>
        <time>2016-07-31T10:31:32Z</time>
      </trkpt>
      <trkpt lat="42.43697" lon="0.06871">
        <ele>628.9</ele>
        <time>2016-07-31T10:31:33Z</time>
      </trkpt>
      <trkpt lat="42.43696" lon="0.06875">
        <ele>629.9</ele>
        <time>2016-07-31T10:31:34Z</time>
      </trkpt>
      <trkpt lat="42.43693" lon="0.06879">
        <ele>631.1</ele>
        <time>2016-07-31T10:31:35Z</time>
      </trkpt>
      <trkpt lat="42.43692" lon="0.06884">
        <ele>631.7</ele>
        <time>2016-07-31T10:31:36Z</time>
      </trkpt>
      <trkpt lat="42.4369" lon="0.06888">
        <ele>633</ele>
        <time>2016-07-31T10:31:37Z</time>
      </trkpt>
      <trkpt lat="42.43688" lon="0.06891">
        <ele>634</ele>
        <time>2016-07-31T10:31:38Z</time>
      </trkpt>
      <trkpt lat="42.43686" lon="0.06894">
        <ele>635.3</ele>
        <time>2016-07-31T10:31:39Z</time>
      </trkpt>
      <trkpt lat="42.43685" lon="0.06897">
        <ele>636.2</ele>
        <time>2016-07-31T10:31:40Z</time>
      </trkpt>
      <trkpt lat="42.43682" lon="0.06904">
        <ele>637.3</ele>
        <time>2016-07-31T10:31:42Z</time>
      </trkpt>
      <trkpt lat="42.43681" lon="0.0691">
        <ele>637.9</ele>
        <time>2016-07-31T10:31:44Z</time>
      </trkpt>
      <trkpt lat="42.4368" lon="0.06914">
        <ele>638.1</ele>
        <time>2016-07-31T10:31:45Z</time>
      </trkpt>
      <trkpt lat="42.4368" lon="0.06919">
        <ele>638.5</ele>
        <time>2016-07-31T10:31:46Z</time>
      </trkpt>
      <trkpt lat="42.43679" lon="0.06923">
        <ele>639</ele>
        <time>2016-07-31T10:31:47Z</time>
      </trkpt>
      <trkpt lat="42.43678" lon="0.06927">
        <ele>639.4</ele>
        <time>2016-07-31T10:31:48Z</time>
      </trkpt>
      <trkpt lat="42.43677" lon="0.06932">
        <ele>639.8</ele>
        <time>2016-07-31T10:31:49Z</time>
      </trkpt>
      <trkpt lat="42.43676" lon="0.06936">
        <ele>640.1</ele>
        <time>2016-07-31T10:31:50Z</time>
      </trkpt>
      <trkpt lat="42.43675" lon="0.0694">
        <ele>640.5</ele>
        <time>2016-07-31T10:31:51Z</time>
      </trkpt>
      <trkpt lat="42.43674" lon="0.06944">
        <ele>640.8</ele>
        <time>2016-07-31T10:31:52Z</time>
      </trkpt>
      <trkpt lat="42.43674" lon="0.06951">
        <ele>641.1</ele>
        <time>2016-07-31T10:31:54Z</time>
      </trkpt>
      <trkpt lat="42.43673" lon="0.06959">
        <ele>640.8</ele>
        <time>2016-07-31T10:31:56Z</time>
      </trkpt>
      <trkpt lat="42.43673" lon="0.06964">
        <ele>640.4</ele>
        <time>2016-07-31T10:31:58Z</time>
      </trkpt>
      <trkpt lat="42.43673" lon="0.06969">
        <ele>639.9</ele>
        <time>2016-07-31T10:32:00Z</time>
      </trkpt>
      <trkpt lat="42.43673" lon="0.06973">
        <ele>639.4</ele>
        <time>2016-07-31T10:32:02Z</time>
      </trkpt>
      <trkpt lat="42.43673" lon="0.06979">
        <ele>638.9</ele>
        <time>2016-07-31T10:32:04Z</time>
      </trkpt>
      <trkpt lat="42.43673" lon="0.06983">
        <ele>638.6</ele>
        <time>2016-07-31T10:32:05Z</time>
      </trkpt>
      <trkpt lat="42.43672" lon="0.06987">
        <ele>638.5</ele>
        <time>2016-07-31T10:32:06Z</time>
      </trkpt>
      <trkpt lat="42.43672" lon="0.06992">
        <ele>638.2</ele>
        <time>2016-07-31T10:32:07Z</time>
      </trkpt>
      <trkpt lat="42.43672" lon="0.06998">
        <ele>637.8</ele>
        <time>2016-07-31T10:32:08Z</time>
      </trkpt>
      <trkpt lat="42.43671" lon="0.07004">
        <ele>637.4</ele>
        <time>2016-07-31T10:32:09Z</time>
      </trkpt>
      <trkpt lat="42.4367" lon="0.07012">
        <ele>637.2</ele>
        <time>2016-07-31T10:32:10Z</time>
      </trkpt>
      <trkpt lat="42.43669" lon="0.07018">
        <ele>637.7</ele>
        <time>2016-07-31T10:32:11Z</time>
      </trkpt>
      <trkpt lat="42.43668" lon="0.07023">
        <ele>637.8</ele>
        <time>2016-07-31T10:32:12Z</time>
      </trkpt>
      <trkpt lat="42.43667" lon="0.07027">
        <ele>638</ele>
        <time>2016-07-31T10:32:13Z</time>
      </trkpt>
      <trkpt lat="42.43667" lon="0.07031">
        <ele>637.3</ele>
        <time>2016-07-31T10:32:14Z</time>
      </trkpt>
      <trkpt lat="42.43666" lon="0.07037">
        <ele>637.5</ele>
        <time>2016-07-31T10:32:16Z</time>
      </trkpt>
      <trkpt lat="42.43665" lon="0.07043">
        <ele>637.2</ele>
        <time>2016-07-31T10:32:18Z</time>
      </trkpt>
      <trkpt lat="42.43664" lon="0.07051">
        <ele>637</ele>
        <time>2016-07-31T10:32:20Z</time>
      </trkpt>
      <trkpt lat="42.43663" lon="0.07056">
        <ele>636.9</ele>
        <time>2016-07-31T10:32:21Z</time>
      </trkpt>
      <trkpt lat="42.43662" lon="0.07061">
        <ele>636.3</ele>
        <time>2016-07-31T10:32:22Z</time>
      </trkpt>
      <trkpt lat="42.43662" lon="0.07069">
        <ele>635</ele>
        <time>2016-07-31T10:32:23Z</time>
      </trkpt>
      <trkpt lat="42.43663" lon="0.07076">
        <ele>633.2</ele>
        <time>2016-07-31T10:32:24Z</time>
      </trkpt>
      <trkpt lat="42.43663" lon="0.07082">
        <ele>631.7</ele>
        <time>2016-07-31T10:32:25Z</time>
      </trkpt>
      <trkpt lat="42.43666" lon="0.07089">
        <ele>628.8</ele>
        <time>2016-07-31T10:32:26Z</time>
      </trkpt>
      <trkpt lat="42.43667" lon="0.07098">
        <ele>626.6</ele>
        <time>2016-07-31T10:32:27Z</time>
      </trkpt>
      <trkpt lat="42.43667" lon="0.07104">
        <ele>625.6</ele>
        <time>2016-07-31T10:32:28Z</time>
      </trkpt>
      <trkpt lat="42.43667" lon="0.07113">
        <ele>624.1</ele>
        <time>2016-07-31T10:32:29Z</time>
      </trkpt>
      <trkpt lat="42.4367" lon="0.07124">
        <ele>620.2</ele>
        <time>2016-07-31T10:32:30Z</time>
      </trkpt>
      <trkpt lat="42.43672" lon="0.07133">
        <ele>618.3</ele>
        <time>2016-07-31T10:32:31Z</time>
      </trkpt>
      <trkpt lat="42.43673" lon="0.07143">
        <ele>617.2</ele>
        <time>2016-07-31T10:32:32Z</time>
      </trkpt>
      <trkpt lat="42.43673" lon="0.07155">
        <ele>616</ele>
        <time>2016-07-31T10:32:33Z</time>
      </trkpt>
      <trkpt lat="42.43672" lon="0.07165">
        <ele>615.6</ele>
        <time>2016-07-31T10:32:34Z</time>
      </trkpt>
      <trkpt lat="42.4367" lon="0.07174">
        <ele>615.9</ele>
        <time>2016-07-31T10:32:35Z</time>
      </trkpt>
      <trkpt lat="42.43668" lon="0.07184">
        <ele>615.6</ele>
        <time>2016-07-31T10:32:36Z</time>
      </trkpt>
      <trkpt lat="42.43666" lon="0.07193">
        <ele>615.9</ele>
        <time>2016-07-31T10:32:37Z</time>
      </trkpt>
      <trkpt lat="42.43662" lon="0.072">
        <ele>616.9</ele>
        <time>2016-07-31T10:32:38Z</time>
      </trkpt>
      <trkpt lat="42.43657" lon="0.07207">
        <ele>618.2</ele>
        <time>2016-07-31T10:32:39Z</time>
      </trkpt>
      <trkpt lat="42.43655" lon="0.07214">
        <ele>618.5</ele>
        <time>2016-07-31T10:32:40Z</time>
      </trkpt>
      <trkpt lat="42.43654" lon="0.07222">
        <ele>618</ele>
        <time>2016-07-31T10:32:41Z</time>
      </trkpt>
      <trkpt lat="42.43655" lon="0.0723">
        <ele>617</ele>
        <time>2016-07-31T10:32:42Z</time>
      </trkpt>
      <trkpt lat="42.43657" lon="0.07235">
        <ele>615.6</ele>
        <time>2016-07-31T10:32:43Z</time>
      </trkpt>
      <trkpt lat="42.43656" lon="0.07242">
        <ele>615.5</ele>
        <time>2016-07-31T10:32:44Z</time>
      </trkpt>
      <trkpt lat="42.43653" lon="0.0725">
        <ele>615.9</ele>
        <time>2016-07-31T10:32:45Z</time>
      </trkpt>
      <trkpt lat="42.43653" lon="0.07258">
        <ele>615.3</ele>
        <time>2016-07-31T10:32:46Z</time>
      </trkpt>
      <trkpt lat="42.43653" lon="0.07264">
        <ele>614.8</ele>
        <time>2016-07-31T10:32:47Z</time>
      </trkpt>
      <trkpt lat="42.43652" lon="0.0727">
        <ele>614.8</ele>
        <time>2016-07-31T10:32:48Z</time>
      </trkpt>
      <trkpt lat="42.43649" lon="0.07276">
        <ele>615.3</ele>
        <time>2016-07-31T10:32:49Z</time>
      </trkpt>
      <trkpt lat="42.43648" lon="0.07283">
        <ele>615.5</ele>
        <time>2016-07-31T10:32:50Z</time>
      </trkpt>
      <trkpt lat="42.43645" lon="0.07289">
        <ele>615.9</ele>
        <time>2016-07-31T10:32:51Z</time>
      </trkpt>
      <trkpt lat="42.43642" lon="0.07296">
        <ele>616.7</ele>
        <time>2016-07-31T10:32:52Z</time>
      </trkpt>
      <trkpt lat="42.43642" lon="0.07302">
        <ele>616.3</ele>
        <time>2016-07-31T10:32:53Z</time>
      </trkpt>
      <trkpt lat="42.4364" lon="0.07308">
        <ele>616.2</ele>
        <time>2016-07-31T10:32:54Z</time>
      </trkpt>
      <trkpt lat="42.43638" lon="0.07313">
        <ele>616.5</ele>
        <time>2016-07-31T10:32:55Z</time>
      </trkpt>
      <trkpt lat="42.43637" lon="0.0732">
        <ele>616.3</ele>
        <time>2016-07-31T10:32:56Z</time>
      </trkpt>
      <trkpt lat="42.43635" lon="0.07327">
        <ele>616.2</ele>
        <time>2016-07-31T10:32:57Z</time>
      </trkpt>
      <trkpt lat="42.43633" lon="0.07334">
        <ele>616</ele>
        <time>2016-07-31T10:32:58Z</time>
      </trkpt>
      <trkpt lat="42.43631" lon="0.07341">
        <ele>615.9</ele>
        <time>2016-07-31T10:32:59Z</time>
      </trkpt>
      <trkpt lat="42.4363" lon="0.07349">
        <ele>615.6</ele>
        <time>2016-07-31T10:33:00Z</time>
      </trkpt>
      <trkpt lat="42.43628" lon="0.07356">
        <ele>615.5</ele>
        <time>2016-07-31T10:33:01Z</time>
      </trkpt>
      <trkpt lat="42.43625" lon="0.07362">
        <ele>615.7</ele>
        <time>2016-07-31T10:33:02Z</time>
      </trkpt>
      <trkpt lat="42.43623" lon="0.07369">
        <ele>615.1</ele>
        <time>2016-07-31T10:33:03Z</time>
      </trkpt>
      <trkpt lat="42.43621" lon="0.07376">
        <ele>614.5</ele>
        <time>2016-07-31T10:33:04Z</time>
      </trkpt>
      <trkpt lat="42.43619" lon="0.07383">
        <ele>613.7</ele>
        <time>2016-07-31T10:33:05Z</time>
      </trkpt>
      <trkpt lat="42.43617" lon="0.07391">
        <ele>612.6</ele>
        <time>2016-07-31T10:33:06Z</time>
      </trkpt>
      <trkpt lat="42.43616" lon="0.07398">
        <ele>611.3</ele>
        <time>2016-07-31T10:33:07Z</time>
      </trkpt>
      <trkpt lat="42.43615" lon="0.07405">
        <ele>610.3</ele>
        <time>2016-07-31T10:33:08Z</time>
      </trkpt>
      <trkpt lat="42.43614" lon="0.07413">
        <ele>609.1</ele>
        <time>2016-07-31T10:33:09Z</time>
      </trkpt>
      <trkpt lat="42.43613" lon="0.07421">
        <ele>607.8</ele>
        <time>2016-07-31T10:33:10Z</time>
      </trkpt>
      <trkpt lat="42.43613" lon="0.07431">
        <ele>605.9</ele>
        <time>2016-07-31T10:33:11Z</time>
      </trkpt>
      <trkpt lat="42.43613" lon="0.0744">
        <ele>604.4</ele>
        <time>2016-07-31T10:33:12Z</time>
      </trkpt>
      <trkpt lat="42.43612" lon="0.07449">
        <ele>602.9</ele>
        <time>2016-07-31T10:33:13Z</time>
      </trkpt>
      <trkpt lat="42.43611" lon="0.07457">
        <ele>601.7</ele>
        <time>2016-07-31T10:33:14Z</time>
      </trkpt>
      <trkpt lat="42.43609" lon="0.07465">
        <ele>600.7</ele>
        <time>2016-07-31T10:33:15Z</time>
      </trkpt>
      <trkpt lat="42.43608" lon="0.07473">
        <ele>599.6</ele>
        <time>2016-07-31T10:33:16Z</time>
      </trkpt>
      <trkpt lat="42.43607" lon="0.07481">
        <ele>598.6</ele>
        <time>2016-07-31T10:33:17Z</time>
      </trkpt>
      <trkpt lat="42.43606" lon="0.07488">
        <ele>597.7</ele>
        <time>2016-07-31T10:33:18Z</time>
      </trkpt>
      <trkpt lat="42.43605" lon="0.07496">
        <ele>596.6</ele>
        <time>2016-07-31T10:33:19Z</time>
      </trkpt>
      <trkpt lat="42.43603" lon="0.07503">
        <ele>595.7</ele>
        <time>2016-07-31T10:33:20Z</time>
      </trkpt>
      <trkpt lat="42.43601" lon="0.07511">
        <ele>594.8</ele>
        <time>2016-07-31T10:33:21Z</time>
      </trkpt>
      <trkpt lat="42.43599" lon="0.07518">
        <ele>593.6</ele>
        <time>2016-07-31T10:33:22Z</time>
      </trkpt>
      <trkpt lat="42.43598" lon="0.07526">
        <ele>592.4</ele>
        <time>2016-07-31T10:33:23Z</time>
      </trkpt>
      <trkpt lat="42.43597" lon="0.07533">
        <ele>591.2</ele>
        <time>2016-07-31T10:33:24Z</time>
      </trkpt>
      <trkpt lat="42.43597" lon="0.0754">
        <ele>590</ele>
        <time>2016-07-31T10:33:25Z</time>
      </trkpt>
      <trkpt lat="42.43596" lon="0.07547">
        <ele>589.4</ele>
        <time>2016-07-31T10:33:26Z</time>
      </trkpt>
      <trkpt lat="42.43594" lon="0.07554">
        <ele>589</ele>
        <time>2016-07-31T10:33:27Z</time>
      </trkpt>
      <trkpt lat="42.43593" lon="0.0756">
        <ele>588.6</ele>
        <time>2016-07-31T10:33:28Z</time>
      </trkpt>
      <trkpt lat="42.43591" lon="0.07566">
        <ele>588.2</ele>
        <time>2016-07-31T10:33:29Z</time>
      </trkpt>
      <trkpt lat="42.4359" lon="0.07571">
        <ele>587.9</ele>
        <time>2016-07-31T10:33:30Z</time>
      </trkpt>
      <trkpt lat="42.43589" lon="0.07576">
        <ele>587.5</ele>
        <time>2016-07-31T10:33:31Z</time>
      </trkpt>
      <trkpt lat="42.43587" lon="0.07581">
        <ele>587.2</ele>
        <time>2016-07-31T10:33:32Z</time>
      </trkpt>
      <trkpt lat="42.43585" lon="0.07585">
        <ele>587</ele>
        <time>2016-07-31T10:33:33Z</time>
      </trkpt>
      <trkpt lat="42.43583" lon="0.07588">
        <ele>586.9</ele>
        <time>2016-07-31T10:33:34Z</time>
      </trkpt>
      <trkpt lat="42.4358" lon="0.07589">
        <ele>587</ele>
        <time>2016-07-31T10:33:35Z</time>
      </trkpt>
      <trkpt lat="42.43578" lon="0.07591">
        <ele>586.9</ele>
        <time>2016-07-31T10:33:36Z</time>
      </trkpt>
      <trkpt lat="42.43575" lon="0.07593">
        <ele>586.9</ele>
        <time>2016-07-31T10:33:37Z</time>
      </trkpt>
      <trkpt lat="42.43572" lon="0.07594">
        <ele>586.9</ele>
        <time>2016-07-31T10:33:38Z</time>
      </trkpt>
      <trkpt lat="42.43569" lon="0.07596">
        <ele>586.9</ele>
        <time>2016-07-31T10:33:40Z</time>
      </trkpt>
      <trkpt lat="42.43565" lon="0.07601">
        <ele>586.6</ele>
        <time>2016-07-31T10:33:42Z</time>
      </trkpt>
      <trkpt lat="42.43564" lon="0.07604">
        <ele>586.4</ele>
        <time>2016-07-31T10:33:43Z</time>
      </trkpt>
      <trkpt lat="42.43563" lon="0.07609">
        <ele>585.9</ele>
        <time>2016-07-31T10:33:44Z</time>
      </trkpt>
      <trkpt lat="42.43562" lon="0.07614">
        <ele>585.4</ele>
        <time>2016-07-31T10:33:45Z</time>
      </trkpt>
      <trkpt lat="42.43562" lon="0.07619">
        <ele>584.9</ele>
        <time>2016-07-31T10:33:46Z</time>
      </trkpt>
      <trkpt lat="42.43561" lon="0.07624">
        <ele>584.4</ele>
        <time>2016-07-31T10:33:47Z</time>
      </trkpt>
      <trkpt lat="42.43561" lon="0.0763">
        <ele>584.3</ele>
        <time>2016-07-31T10:33:48Z</time>
      </trkpt>
      <trkpt lat="42.4356" lon="0.07635">
        <ele>584.4</ele>
        <time>2016-07-31T10:33:49Z</time>
      </trkpt>
      <trkpt lat="42.4356" lon="0.0764">
        <ele>584.4</ele>
        <time>2016-07-31T10:33:50Z</time>
      </trkpt>
      <trkpt lat="42.43559" lon="0.07644">
        <ele>584.4</ele>
        <time>2016-07-31T10:33:51Z</time>
      </trkpt>
      <trkpt lat="42.43559" lon="0.07648">
        <ele>584.4</ele>
        <time>2016-07-31T10:33:52Z</time>
      </trkpt>
      <trkpt lat="42.43558" lon="0.07652">
        <ele>584.5</ele>
        <time>2016-07-31T10:33:53Z</time>
      </trkpt>
      <trkpt lat="42.43557" lon="0.07655">
        <ele>584.5</ele>
        <time>2016-07-31T10:33:54Z</time>
      </trkpt>
      <trkpt lat="42.43555" lon="0.07658">
        <ele>584.6</ele>
        <time>2016-07-31T10:33:55Z</time>
      </trkpt>
      <trkpt lat="42.43553" lon="0.07661">
        <ele>584.6</ele>
        <time>2016-07-31T10:33:56Z</time>
      </trkpt>
      <trkpt lat="42.43551" lon="0.07664">
        <ele>584.7</ele>
        <time>2016-07-31T10:33:57Z</time>
      </trkpt>
      <trkpt lat="42.43549" lon="0.07666">
        <ele>584.8</ele>
        <time>2016-07-31T10:33:58Z</time>
      </trkpt>
      <trkpt lat="42.43547" lon="0.07668">
        <ele>584.9</ele>
        <time>2016-07-31T10:33:59Z</time>
      </trkpt>
      <trkpt lat="42.43544" lon="0.07671">
        <ele>584.9</ele>
        <time>2016-07-31T10:34:00Z</time>
      </trkpt>
      <trkpt lat="42.43541" lon="0.07673">
        <ele>585</ele>
        <time>2016-07-31T10:34:01Z</time>
      </trkpt>
      <trkpt lat="42.43538" lon="0.07676">
        <ele>585</ele>
        <time>2016-07-31T10:34:02Z</time>
      </trkpt>
      <trkpt lat="42.43535" lon="0.07678">
        <ele>585</ele>
        <time>2016-07-31T10:34:03Z</time>
      </trkpt>
      <trkpt lat="42.43532" lon="0.07681">
        <ele>585</ele>
        <time>2016-07-31T10:34:04Z</time>
      </trkpt>
      <trkpt lat="42.4353" lon="0.07683">
        <ele>585</ele>
        <time>2016-07-31T10:34:05Z</time>
      </trkpt>
      <trkpt lat="42.43527" lon="0.07686">
        <ele>585</ele>
        <time>2016-07-31T10:34:06Z</time>
      </trkpt>
      <trkpt lat="42.43525" lon="0.07688">
        <ele>585</ele>
        <time>2016-07-31T10:34:07Z</time>
      </trkpt>
      <trkpt lat="42.43523" lon="0.07691">
        <ele>585</ele>
        <time>2016-07-31T10:34:08Z</time>
      </trkpt>
      <trkpt lat="42.43521" lon="0.07694">
        <ele>584.9</ele>
        <time>2016-07-31T10:34:09Z</time>
      </trkpt>
      <trkpt lat="42.43519" lon="0.07697">
        <ele>584.9</ele>
        <time>2016-07-31T10:34:10Z</time>
      </trkpt>
      <trkpt lat="42.43517" lon="0.077">
        <ele>584.8</ele>
        <time>2016-07-31T10:34:11Z</time>
      </trkpt>
      <trkpt lat="42.43515" lon="0.07703">
        <ele>584.8</ele>
        <time>2016-07-31T10:34:12Z</time>
      </trkpt>
      <trkpt lat="42.43513" lon="0.07706">
        <ele>584.7</ele>
        <time>2016-07-31T10:34:13Z</time>
      </trkpt>
      <trkpt lat="42.43511" lon="0.0771">
        <ele>584.6</ele>
        <time>2016-07-31T10:34:14Z</time>
      </trkpt>
      <trkpt lat="42.43509" lon="0.07713">
        <ele>584.6</ele>
        <time>2016-07-31T10:34:15Z</time>
      </trkpt>
      <trkpt lat="42.43508" lon="0.07717">
        <ele>584.5</ele>
        <time>2016-07-31T10:34:16Z</time>
      </trkpt>
      <trkpt lat="42.43505" lon="0.07722">
        <ele>584.4</ele>
        <time>2016-07-31T10:34:18Z</time>
      </trkpt>
      <trkpt lat="42.43504" lon="0.07726">
        <ele>584.3</ele>
        <time>2016-07-31T10:34:20Z</time>
      </trkpt>
      <trkpt lat="42.43503" lon="0.07731">
        <ele>584.3</ele>
        <time>2016-07-31T10:34:22Z</time>
      </trkpt>
      <trkpt lat="42.43501" lon="0.07735">
        <ele>584.2</ele>
        <time>2016-07-31T10:34:24Z</time>
      </trkpt>
      <trkpt lat="42.435" lon="0.0774">
        <ele>584.1</ele>
        <time>2016-07-31T10:34:26Z</time>
      </trkpt>
      <trkpt lat="42.43501" lon="0.07745">
        <ele>584.1</ele>
        <time>2016-07-31T10:34:28Z</time>
      </trkpt>
      <trkpt lat="42.435" lon="0.0775">
        <ele>584</ele>
        <time>2016-07-31T10:34:30Z</time>
      </trkpt>
      <trkpt lat="42.435" lon="0.07757">
        <ele>583.9</ele>
        <time>2016-07-31T10:34:32Z</time>
      </trkpt>
      <trkpt lat="42.435" lon="0.07761">
        <ele>583.9</ele>
        <time>2016-07-31T10:34:33Z</time>
      </trkpt>
      <trkpt lat="42.43499" lon="0.07765">
        <ele>583.8</ele>
        <time>2016-07-31T10:34:34Z</time>
      </trkpt>
      <trkpt lat="42.43499" lon="0.0777">
        <ele>583.7</ele>
        <time>2016-07-31T10:34:35Z</time>
      </trkpt>
      <trkpt lat="42.43499" lon="0.07774">
        <ele>583.7</ele>
        <time>2016-07-31T10:34:36Z</time>
      </trkpt>
      <trkpt lat="42.43499" lon="0.0778">
        <ele>583.6</ele>
        <time>2016-07-31T10:34:38Z</time>
      </trkpt>
      <trkpt lat="42.43502" lon="0.0778">
        <ele>583.7</ele>
        <time>2016-07-31T10:34:40Z</time>
      </trkpt>
      <trkpt lat="42.43505" lon="0.07774">
        <ele>583.9</ele>
        <time>2016-07-31T10:34:42Z</time>
      </trkpt>
      <trkpt lat="42.43505" lon="0.0777">
        <ele>583.9</ele>
        <time>2016-07-31T10:34:43Z</time>
      </trkpt>
      <trkpt lat="42.43505" lon="0.07766">
        <ele>584</ele>
        <time>2016-07-31T10:34:44Z</time>
      </trkpt>
      <trkpt lat="42.43505" lon="0.07762">
        <ele>584</ele>
        <time>2016-07-31T10:34:45Z</time>
      </trkpt>
      <trkpt lat="42.43505" lon="0.07759">
        <ele>584</ele>
        <time>2016-07-31T10:34:46Z</time>
      </trkpt>
      <trkpt lat="42.43505" lon="0.07752">
        <ele>584.1</ele>
        <time>2016-07-31T10:34:48Z</time>
      </trkpt>
      <trkpt lat="42.43506" lon="0.07747">
        <ele>584.2</ele>
        <time>2016-07-31T10:34:50Z</time>
      </trkpt>
      <trkpt lat="42.43506" lon="0.07743">
        <ele>584.2</ele>
        <time>2016-07-31T10:34:52Z</time>
      </trkpt>
      <trkpt lat="42.43506" lon="0.07738">
        <ele>584.3</ele>
        <time>2016-07-31T10:34:54Z</time>
      </trkpt>
      <trkpt lat="42.43507" lon="0.07734">
        <ele>584.3</ele>
        <time>2016-07-31T10:34:57Z</time>
      </trkpt>
      <trkpt lat="42.43509" lon="0.0773">
        <ele>584.4</ele>
        <time>2016-07-31T10:35:00Z</time>
      </trkpt>
      <trkpt lat="42.4351" lon="0.07726">
        <ele>584.5</ele>
        <time>2016-07-31T10:35:03Z</time>
      </trkpt>
      <trkpt lat="42.43512" lon="0.07724">
        <ele>584.5</ele>
        <time>2016-07-31T10:35:06Z</time>
      </trkpt>
      <trkpt lat="42.43515" lon="0.07721">
        <ele>584.6</ele>
        <time>2016-07-31T10:35:09Z</time>
      </trkpt>
      <trkpt lat="42.43515" lon="0.07717">
        <ele>584.6</ele>
        <time>2016-07-31T10:35:17Z</time>
      </trkpt>
      <trkpt lat="42.43514" lon="0.07713">
        <ele>584.6</ele>
        <time>2016-07-31T10:37:42Z</time>
      </trkpt>
      <trkpt lat="42.43516" lon="0.07711">
        <ele>584.7</ele>
        <time>2016-07-31T10:37:44Z</time>
      </trkpt>
      <trkpt lat="42.43519" lon="0.07707">
        <ele>584.7</ele>
        <time>2016-07-31T10:37:46Z</time>
      </trkpt>
      <trkpt lat="42.43522" lon="0.07704">
        <ele>584.8</ele>
        <time>2016-07-31T10:37:48Z</time>
      </trkpt>
      <trkpt lat="42.43527" lon="0.07703">
        <ele>584.9</ele>
        <time>2016-07-31T10:37:50Z</time>
      </trkpt>
      <trkpt lat="42.43531" lon="0.07703">
        <ele>584.9</ele>
        <time>2016-07-31T10:37:52Z</time>
      </trkpt>
      <trkpt lat="42.43533" lon="0.07707">
        <ele>584.9</ele>
        <time>2016-07-31T10:38:00Z</time>
      </trkpt>
      <trkpt lat="42.43534" lon="0.0771">
        <ele>584.9</ele>
        <time>2016-07-31T10:38:06Z</time>
      </trkpt>
      <trkpt lat="42.43538" lon="0.0771">
        <ele>585</ele>
        <time>2016-07-31T10:38:13Z</time>
      </trkpt>
      <trkpt lat="42.4354" lon="0.0771">
        <ele>585</ele>
        <time>2016-07-31T10:38:22Z</time>
      </trkpt>
      <trkpt lat="42.43538" lon="0.07707">
        <ele>585</ele>
        <time>2016-07-31T10:38:27Z</time>
      </trkpt>
      <trkpt lat="42.43535" lon="0.07707">
        <ele>584.9</ele>
        <time>2016-07-31T10:38:30Z</time>
      </trkpt>
      <trkpt lat="42.43532" lon="0.07707">
        <ele>584.9</ele>
        <time>2016-07-31T10:38:33Z</time>
      </trkpt>
      <trkpt lat="42.43529" lon="0.07705">
        <ele>584.9</ele>
        <time>2016-07-31T10:38:35Z</time>
      </trkpt>
      <trkpt lat="42.43525" lon="0.07701">
        <ele>584.9</ele>
        <time>2016-07-31T10:38:37Z</time>
      </trkpt>
      <trkpt lat="42.43524" lon="0.07694">
        <ele>584.9</ele>
        <time>2016-07-31T10:38:39Z</time>
      </trkpt>
      <trkpt lat="42.43527" lon="0.0769">
        <ele>585</ele>
        <time>2016-07-31T10:38:40Z</time>
      </trkpt>
      <trkpt lat="42.4353" lon="0.07687">
        <ele>585</ele>
        <time>2016-07-31T10:38:41Z</time>
      </trkpt>
      <trkpt lat="42.43533" lon="0.07684">
        <ele>585</ele>
        <time>2016-07-31T10:38:42Z</time>
      </trkpt>
      <trkpt lat="42.43537" lon="0.07682">
        <ele>585</ele>
        <time>2016-07-31T10:38:43Z</time>
      </trkpt>
      <trkpt lat="42.4354" lon="0.07679">
        <ele>585</ele>
        <time>2016-07-31T10:38:44Z</time>
      </trkpt>
      <trkpt lat="42.43544" lon="0.07676">
        <ele>584.9</ele>
        <time>2016-07-31T10:38:45Z</time>
      </trkpt>
      <trkpt lat="42.43547" lon="0.07674">
        <ele>584.9</ele>
        <time>2016-07-31T10:38:46Z</time>
      </trkpt>
      <trkpt lat="42.4355" lon="0.07671">
        <ele>584.8</ele>
        <time>2016-07-31T10:38:47Z</time>
      </trkpt>
      <trkpt lat="42.43553" lon="0.07667">
        <ele>584.7</ele>
        <time>2016-07-31T10:38:48Z</time>
      </trkpt>
      <trkpt lat="42.43555" lon="0.07664">
        <ele>584.6</ele>
        <time>2016-07-31T10:38:49Z</time>
      </trkpt>
      <trkpt lat="42.43558" lon="0.0766">
        <ele>584.5</ele>
        <time>2016-07-31T10:38:50Z</time>
      </trkpt>
      <trkpt lat="42.4356" lon="0.07656">
        <ele>584.4</ele>
        <time>2016-07-31T10:38:51Z</time>
      </trkpt>
      <trkpt lat="42.43562" lon="0.07652">
        <ele>584.4</ele>
        <time>2016-07-31T10:38:52Z</time>
      </trkpt>
      <trkpt lat="42.43564" lon="0.07648">
        <ele>584.3</ele>
        <time>2016-07-31T10:38:53Z</time>
      </trkpt>
      <trkpt lat="42.43566" lon="0.07645">
        <ele>584.2</ele>
        <time>2016-07-31T10:38:54Z</time>
      </trkpt>
      <trkpt lat="42.43568" lon="0.07643">
        <ele>584.1</ele>
        <time>2016-07-31T10:38:55Z</time>
      </trkpt>
      <trkpt lat="42.43573" lon="0.0764">
        <ele>584</ele>
        <time>2016-07-31T10:38:57Z</time>
      </trkpt>
      <trkpt lat="42.43576" lon="0.07641">
        <ele>583.8</ele>
        <time>2016-07-31T10:38:59Z</time>
      </trkpt>
      <trkpt lat="42.43579" lon="0.07643">
        <ele>583.8</ele>
        <time>2016-07-31T10:39:02Z</time>
      </trkpt>
      <trkpt lat="42.43575" lon="0.07642">
        <ele>583.9</ele>
        <time>2016-07-31T10:39:28Z</time>
      </trkpt>
      <trkpt lat="42.43573" lon="0.07638">
        <ele>583.9</ele>
        <time>2016-07-31T10:39:30Z</time>
      </trkpt>
      <trkpt lat="42.43571" lon="0.07635">
        <ele>584</ele>
        <time>2016-07-31T10:39:32Z</time>
      </trkpt>
      <trkpt lat="42.43568" lon="0.07634">
        <ele>584.1</ele>
        <time>2016-07-31T10:39:34Z</time>
      </trkpt>
      <trkpt lat="42.43564" lon="0.07636">
        <ele>584.2</ele>
        <time>2016-07-31T10:39:36Z</time>
      </trkpt>
      <trkpt lat="42.4356" lon="0.0764">
        <ele>584.4</ele>
        <time>2016-07-31T10:39:38Z</time>
      </trkpt>
      <trkpt lat="42.43559" lon="0.07643">
        <ele>584.4</ele>
        <time>2016-07-31T10:39:39Z</time>
      </trkpt>
      <trkpt lat="42.43557" lon="0.07647">
        <ele>584.5</ele>
        <time>2016-07-31T10:39:40Z</time>
      </trkpt>
      <trkpt lat="42.43556" lon="0.07651">
        <ele>584.5</ele>
        <time>2016-07-31T10:39:41Z</time>
      </trkpt>
      <trkpt lat="42.43554" lon="0.07654">
        <ele>584.6</ele>
        <time>2016-07-31T10:39:42Z</time>
      </trkpt>
      <trkpt lat="42.43552" lon="0.07659">
        <ele>584.7</ele>
        <time>2016-07-31T10:39:44Z</time>
      </trkpt>
      <trkpt lat="42.43552" lon="0.07663">
        <ele>584.7</ele>
        <time>2016-07-31T10:39:46Z</time>
      </trkpt>
      <trkpt lat="42.43557" lon="0.07662">
        <ele>584.5</ele>
        <time>2016-07-31T10:39:48Z</time>
      </trkpt>
      <trkpt lat="42.43559" lon="0.0766">
        <ele>584.5</ele>
        <time>2016-07-31T10:39:49Z</time>
      </trkpt>
      <trkpt lat="42.43561" lon="0.07656">
        <ele>584.4</ele>
        <time>2016-07-31T10:39:50Z</time>
      </trkpt>
      <trkpt lat="42.43562" lon="0.07652">
        <ele>584.3</ele>
        <time>2016-07-31T10:39:51Z</time>
      </trkpt>
      <trkpt lat="42.43564" lon="0.07648">
        <ele>584.3</ele>
        <time>2016-07-31T10:39:52Z</time>
      </trkpt>
      <trkpt lat="42.43565" lon="0.07645">
        <ele>584.2</ele>
        <time>2016-07-31T10:39:53Z</time>
      </trkpt>
      <trkpt lat="42.43568" lon="0.0764">
        <ele>584.1</ele>
        <time>2016-07-31T10:39:55Z</time>
      </trkpt>
      <trkpt lat="42.43571" lon="0.0764">
        <ele>584</ele>
        <time>2016-07-31T10:39:57Z</time>
      </trkpt>
      <trkpt lat="42.43575" lon="0.07641">
        <ele>583.9</ele>
        <time>2016-07-31T10:39:59Z</time>
      </trkpt>
      <trkpt lat="42.43578" lon="0.07642">
        <ele>583.8</ele>
        <time>2016-07-31T10:40:02Z</time>
      </trkpt>
      <trkpt lat="42.43575" lon="0.07637">
        <ele>583.9</ele>
        <time>2016-07-31T10:45:35Z</time>
      </trkpt>
      <trkpt lat="42.4357" lon="0.07634">
        <ele>584</ele>
        <time>2016-07-31T10:45:37Z</time>
      </trkpt>
      <trkpt lat="42.43565" lon="0.07635">
        <ele>584.2</ele>
        <time>2016-07-31T10:45:39Z</time>
      </trkpt>
      <trkpt lat="42.43562" lon="0.07638">
        <ele>584.3</ele>
        <time>2016-07-31T10:45:40Z</time>
      </trkpt>
      <trkpt lat="42.4356" lon="0.07641">
        <ele>584.4</ele>
        <time>2016-07-31T10:45:41Z</time>
      </trkpt>
      <trkpt lat="42.43558" lon="0.07645">
        <ele>584.5</ele>
        <time>2016-07-31T10:45:42Z</time>
      </trkpt>
      <trkpt lat="42.43556" lon="0.07649">
        <ele>584.5</ele>
        <time>2016-07-31T10:45:43Z</time>
      </trkpt>
      <trkpt lat="42.43554" lon="0.07653">
        <ele>584.6</ele>
        <time>2016-07-31T10:45:44Z</time>
      </trkpt>
      <trkpt lat="42.43552" lon="0.07657">
        <ele>584.7</ele>
        <time>2016-07-31T10:45:45Z</time>
      </trkpt>
      <trkpt lat="42.4355" lon="0.0766">
        <ele>584.8</ele>
        <time>2016-07-31T10:45:46Z</time>
      </trkpt>
      <trkpt lat="42.43547" lon="0.07663">
        <ele>584.8</ele>
        <time>2016-07-31T10:45:47Z</time>
      </trkpt>
      <trkpt lat="42.43544" lon="0.07666">
        <ele>584.9</ele>
        <time>2016-07-31T10:45:48Z</time>
      </trkpt>
      <trkpt lat="42.43541" lon="0.07669">
        <ele>585</ele>
        <time>2016-07-31T10:45:49Z</time>
      </trkpt>
      <trkpt lat="42.43539" lon="0.07673">
        <ele>585</ele>
        <time>2016-07-31T10:45:50Z</time>
      </trkpt>
      <trkpt lat="42.43536" lon="0.07676">
        <ele>585</ele>
        <time>2016-07-31T10:45:51Z</time>
      </trkpt>
      <trkpt lat="42.43532" lon="0.0768">
        <ele>585</ele>
        <time>2016-07-31T10:45:52Z</time>
      </trkpt>
      <trkpt lat="42.43529" lon="0.07684">
        <ele>585</ele>
        <time>2016-07-31T10:45:53Z</time>
      </trkpt>
      <trkpt lat="42.43526" lon="0.07687">
        <ele>585</ele>
        <time>2016-07-31T10:45:54Z</time>
      </trkpt>
      <trkpt lat="42.43523" lon="0.07691">
        <ele>585</ele>
        <time>2016-07-31T10:45:55Z</time>
      </trkpt>
      <trkpt lat="42.4352" lon="0.07695">
        <ele>584.9</ele>
        <time>2016-07-31T10:45:56Z</time>
      </trkpt>
      <trkpt lat="42.43517" lon="0.07699">
        <ele>584.8</ele>
        <time>2016-07-31T10:45:57Z</time>
      </trkpt>
      <trkpt lat="42.43514" lon="0.07704">
        <ele>584.7</ele>
        <time>2016-07-31T10:45:58Z</time>
      </trkpt>
      <trkpt lat="42.43512" lon="0.0771">
        <ele>584.6</ele>
        <time>2016-07-31T10:45:59Z</time>
      </trkpt>
      <trkpt lat="42.4351" lon="0.07715">
        <ele>584.6</ele>
        <time>2016-07-31T10:46:00Z</time>
      </trkpt>
      <trkpt lat="42.43507" lon="0.0772">
        <ele>584.5</ele>
        <time>2016-07-31T10:46:01Z</time>
      </trkpt>
      <trkpt lat="42.43504" lon="0.07725">
        <ele>584.4</ele>
        <time>2016-07-31T10:46:02Z</time>
      </trkpt>
      <trkpt lat="42.43501" lon="0.0773">
        <ele>584.3</ele>
        <time>2016-07-31T10:46:03Z</time>
      </trkpt>
      <trkpt lat="42.43498" lon="0.07734">
        <ele>584.2</ele>
        <time>2016-07-31T10:46:04Z</time>
      </trkpt>
      <trkpt lat="42.43495" lon="0.07737">
        <ele>584</ele>
        <time>2016-07-31T10:46:05Z</time>
      </trkpt>
      <trkpt lat="42.43491" lon="0.07741">
        <ele>583.9</ele>
        <time>2016-07-31T10:46:06Z</time>
      </trkpt>
      <trkpt lat="42.43489" lon="0.07745">
        <ele>583.8</ele>
        <time>2016-07-31T10:46:07Z</time>
      </trkpt>
      <trkpt lat="42.43486" lon="0.07749">
        <ele>583.7</ele>
        <time>2016-07-31T10:46:08Z</time>
      </trkpt>
      <trkpt lat="42.43483" lon="0.07754">
        <ele>583.5</ele>
        <time>2016-07-31T10:46:09Z</time>
      </trkpt>
      <trkpt lat="42.4348" lon="0.07758">
        <ele>583.4</ele>
        <time>2016-07-31T10:46:10Z</time>
      </trkpt>
      <trkpt lat="42.43476" lon="0.07762">
        <ele>583.2</ele>
        <time>2016-07-31T10:46:11Z</time>
      </trkpt>
      <trkpt lat="42.43472" lon="0.07766">
        <ele>583</ele>
        <time>2016-07-31T10:46:12Z</time>
      </trkpt>
      <trkpt lat="42.43468" lon="0.07769">
        <ele>582.8</ele>
        <time>2016-07-31T10:46:13Z</time>
      </trkpt>
      <trkpt lat="42.43464" lon="0.07772">
        <ele>582.6</ele>
        <time>2016-07-31T10:46:14Z</time>
      </trkpt>
      <trkpt lat="42.43459" lon="0.07775">
        <ele>582.4</ele>
        <time>2016-07-31T10:46:15Z</time>
      </trkpt>
      <trkpt lat="42.43455" lon="0.07778">
        <ele>582.4</ele>
        <time>2016-07-31T10:46:16Z</time>
      </trkpt>
      <trkpt lat="42.43451" lon="0.07781">
        <ele>582.4</ele>
        <time>2016-07-31T10:46:17Z</time>
      </trkpt>
      <trkpt lat="42.43447" lon="0.07784">
        <ele>582.3</ele>
        <time>2016-07-31T10:46:18Z</time>
      </trkpt>
      <trkpt lat="42.43443" lon="0.07787">
        <ele>582.3</ele>
        <time>2016-07-31T10:46:19Z</time>
      </trkpt>
      <trkpt lat="42.43439" lon="0.0779">
        <ele>582.3</ele>
        <time>2016-07-31T10:46:20Z</time>
      </trkpt>
      <trkpt lat="42.43435" lon="0.07793">
        <ele>582.2</ele>
        <time>2016-07-31T10:46:21Z</time>
      </trkpt>
      <trkpt lat="42.43431" lon="0.07796">
        <ele>582.2</ele>
        <time>2016-07-31T10:46:22Z</time>
      </trkpt>
      <trkpt lat="42.43427" lon="0.07799">
        <ele>582.1</ele>
        <time>2016-07-31T10:46:23Z</time>
      </trkpt>
      <trkpt lat="42.43423" lon="0.07802">
        <ele>582</ele>
        <time>2016-07-31T10:46:24Z</time>
      </trkpt>
      <trkpt lat="42.4342" lon="0.07806">
        <ele>582</ele>
        <time>2016-07-31T10:46:25Z</time>
      </trkpt>
      <trkpt lat="42.43416" lon="0.07809">
        <ele>581.9</ele>
        <time>2016-07-31T10:46:26Z</time>
      </trkpt>
      <trkpt lat="42.43413" lon="0.07813">
        <ele>581.8</ele>
        <time>2016-07-31T10:46:27Z</time>
      </trkpt>
      <trkpt lat="42.4341" lon="0.07816">
        <ele>581.7</ele>
        <time>2016-07-31T10:46:28Z</time>
      </trkpt>
      <trkpt lat="42.43408" lon="0.0782">
        <ele>581.6</ele>
        <time>2016-07-31T10:46:29Z</time>
      </trkpt>
      <trkpt lat="42.43405" lon="0.07824">
        <ele>581.5</ele>
        <time>2016-07-31T10:46:30Z</time>
      </trkpt>
      <trkpt lat="42.43402" lon="0.07828">
        <ele>581.4</ele>
        <time>2016-07-31T10:46:31Z</time>
      </trkpt>
      <trkpt lat="42.43398" lon="0.07832">
        <ele>581.3</ele>
        <time>2016-07-31T10:46:32Z</time>
      </trkpt>
      <trkpt lat="42.43395" lon="0.07836">
        <ele>581.2</ele>
        <time>2016-07-31T10:46:33Z</time>
      </trkpt>
      <trkpt lat="42.43391" lon="0.0784">
        <ele>581.1</ele>
        <time>2016-07-31T10:46:34Z</time>
      </trkpt>
      <trkpt lat="42.43387" lon="0.07844">
        <ele>581</ele>
        <time>2016-07-31T10:46:35Z</time>
      </trkpt>
      <trkpt lat="42.43384" lon="0.07849">
        <ele>580.8</ele>
        <time>2016-07-31T10:46:36Z</time>
      </trkpt>
      <trkpt lat="42.4338" lon="0.07853">
        <ele>580.7</ele>
        <time>2016-07-31T10:46:37Z</time>
      </trkpt>
      <trkpt lat="42.43377" lon="0.07858">
        <ele>580.6</ele>
        <time>2016-07-31T10:46:38Z</time>
      </trkpt>
      <trkpt lat="42.43373" lon="0.07862">
        <ele>580.5</ele>
        <time>2016-07-31T10:46:39Z</time>
      </trkpt>
      <trkpt lat="42.43369" lon="0.07867">
        <ele>580.4</ele>
        <time>2016-07-31T10:46:40Z</time>
      </trkpt>
      <trkpt lat="42.43365" lon="0.07872">
        <ele>580.2</ele>
        <time>2016-07-31T10:46:41Z</time>
      </trkpt>
      <trkpt lat="42.43361" lon="0.07876">
        <ele>580.2</ele>
        <time>2016-07-31T10:46:42Z</time>
      </trkpt>
      <trkpt lat="42.43357" lon="0.07881">
        <ele>580.2</ele>
        <time>2016-07-31T10:46:43Z</time>
      </trkpt>
      <trkpt lat="42.43352" lon="0.07886">
        <ele>580.2</ele>
        <time>2016-07-31T10:46:44Z</time>
      </trkpt>
      <trkpt lat="42.43348" lon="0.07891">
        <ele>580.2</ele>
        <time>2016-07-31T10:46:45Z</time>
      </trkpt>
      <trkpt lat="42.43343" lon="0.07895">
        <ele>580.2</ele>
        <time>2016-07-31T10:46:46Z</time>
      </trkpt>
      <trkpt lat="42.43339" lon="0.079">
        <ele>580.2</ele>
        <time>2016-07-31T10:46:47Z</time>
      </trkpt>
      <trkpt lat="42.43334" lon="0.07904">
        <ele>580.1</ele>
        <time>2016-07-31T10:46:48Z</time>
      </trkpt>
      <trkpt lat="42.4333" lon="0.07908">
        <ele>580.1</ele>
        <time>2016-07-31T10:46:49Z</time>
      </trkpt>
      <trkpt lat="42.43326" lon="0.07912">
        <ele>580.1</ele>
        <time>2016-07-31T10:46:50Z</time>
      </trkpt>
      <trkpt lat="42.43321" lon="0.07917">
        <ele>580</ele>
        <time>2016-07-31T10:46:51Z</time>
      </trkpt>
      <trkpt lat="42.43317" lon="0.07921">
        <ele>579.9</ele>
        <time>2016-07-31T10:46:52Z</time>
      </trkpt>
      <trkpt lat="42.43313" lon="0.07926">
        <ele>579.8</ele>
        <time>2016-07-31T10:46:53Z</time>
      </trkpt>
      <trkpt lat="42.43309" lon="0.0793">
        <ele>579.7</ele>
        <time>2016-07-31T10:46:54Z</time>
      </trkpt>
      <trkpt lat="42.43305" lon="0.07935">
        <ele>579.6</ele>
        <time>2016-07-31T10:46:55Z</time>
      </trkpt>
      <trkpt lat="42.43301" lon="0.07939">
        <ele>579.5</ele>
        <time>2016-07-31T10:46:56Z</time>
      </trkpt>
      <trkpt lat="42.43297" lon="0.07943">
        <ele>579.4</ele>
        <time>2016-07-31T10:46:57Z</time>
      </trkpt>
      <trkpt lat="42.43293" lon="0.07948">
        <ele>579.3</ele>
        <time>2016-07-31T10:46:58Z</time>
      </trkpt>
      <trkpt lat="42.43289" lon="0.07952">
        <ele>579.1</ele>
        <time>2016-07-31T10:46:59Z</time>
      </trkpt>
      <trkpt lat="42.43285" lon="0.07957">
        <ele>579</ele>
        <time>2016-07-31T10:47:00Z</time>
      </trkpt>
      <trkpt lat="42.43281" lon="0.07962">
        <ele>578.8</ele>
        <time>2016-07-31T10:47:01Z</time>
      </trkpt>
      <trkpt lat="42.43278" lon="0.07967">
        <ele>578.6</ele>
        <time>2016-07-31T10:47:02Z</time>
      </trkpt>
      <trkpt lat="42.43274" lon="0.07972">
        <ele>578.5</ele>
        <time>2016-07-31T10:47:03Z</time>
      </trkpt>
      <trkpt lat="42.43271" lon="0.07977">
        <ele>578.3</ele>
        <time>2016-07-31T10:47:04Z</time>
      </trkpt>
      <trkpt lat="42.43267" lon="0.07982">
        <ele>578.1</ele>
        <time>2016-07-31T10:47:05Z</time>
      </trkpt>
      <trkpt lat="42.43264" lon="0.07987">
        <ele>578</ele>
        <time>2016-07-31T10:47:06Z</time>
      </trkpt>
      <trkpt lat="42.4326" lon="0.07992">
        <ele>577.8</ele>
        <time>2016-07-31T10:47:07Z</time>
      </trkpt>
      <trkpt lat="42.43256" lon="0.07996">
        <ele>577.7</ele>
        <time>2016-07-31T10:47:08Z</time>
      </trkpt>
      <trkpt lat="42.43252" lon="0.07999">
        <ele>577.5</ele>
        <time>2016-07-31T10:47:09Z</time>
      </trkpt>
      <trkpt lat="42.43248" lon="0.08003">
        <ele>577.4</ele>
        <time>2016-07-31T10:47:10Z</time>
      </trkpt>
      <trkpt lat="42.43243" lon="0.08006">
        <ele>577.3</ele>
        <time>2016-07-31T10:47:11Z</time>
      </trkpt>
      <trkpt lat="42.43239" lon="0.08009">
        <ele>577.2</ele>
        <time>2016-07-31T10:47:12Z</time>
      </trkpt>
      <trkpt lat="42.43235" lon="0.08012">
        <ele>577</ele>
        <time>2016-07-31T10:47:13Z</time>
      </trkpt>
      <trkpt lat="42.43231" lon="0.08015">
        <ele>576.9</ele>
        <time>2016-07-31T10:47:14Z</time>
      </trkpt>
      <trkpt lat="42.43226" lon="0.08018">
        <ele>576.8</ele>
        <time>2016-07-31T10:47:15Z</time>
      </trkpt>
      <trkpt lat="42.43222" lon="0.08021">
        <ele>576.7</ele>
        <time>2016-07-31T10:47:16Z</time>
      </trkpt>
      <trkpt lat="42.43218" lon="0.08024">
        <ele>576.5</ele>
        <time>2016-07-31T10:47:17Z</time>
      </trkpt>
      <trkpt lat="42.43213" lon="0.08027">
        <ele>576.4</ele>
        <time>2016-07-31T10:47:18Z</time>
      </trkpt>
      <trkpt lat="42.43209" lon="0.0803">
        <ele>576.3</ele>
        <time>2016-07-31T10:47:19Z</time>
      </trkpt>
      <trkpt lat="42.43205" lon="0.08033">
        <ele>576.3</ele>
        <time>2016-07-31T10:47:20Z</time>
      </trkpt>
      <trkpt lat="42.43201" lon="0.08036">
        <ele>576.2</ele>
        <time>2016-07-31T10:47:21Z</time>
      </trkpt>
      <trkpt lat="42.43197" lon="0.08039">
        <ele>576.2</ele>
        <time>2016-07-31T10:47:22Z</time>
      </trkpt>
      <trkpt lat="42.43192" lon="0.08042">
        <ele>576.2</ele>
        <time>2016-07-31T10:47:23Z</time>
      </trkpt>
      <trkpt lat="42.43188" lon="0.08045">
        <ele>576.3</ele>
        <time>2016-07-31T10:47:24Z</time>
      </trkpt>
      <trkpt lat="42.43184" lon="0.08048">
        <ele>576.4</ele>
        <time>2016-07-31T10:47:25Z</time>
      </trkpt>
      <trkpt lat="42.4318" lon="0.0805">
        <ele>576.5</ele>
        <time>2016-07-31T10:47:26Z</time>
      </trkpt>
      <trkpt lat="42.43176" lon="0.08053">
        <ele>576.6</ele>
        <time>2016-07-31T10:47:27Z</time>
      </trkpt>
      <trkpt lat="42.43171" lon="0.08056">
        <ele>576.7</ele>
        <time>2016-07-31T10:47:28Z</time>
      </trkpt>
      <trkpt lat="42.43167" lon="0.08058">
        <ele>576.8</ele>
        <time>2016-07-31T10:47:29Z</time>
      </trkpt>
      <trkpt lat="42.43162" lon="0.08061">
        <ele>576.9</ele>
        <time>2016-07-31T10:47:30Z</time>
      </trkpt>
      <trkpt lat="42.43157" lon="0.08063">
        <ele>577</ele>
        <time>2016-07-31T10:47:31Z</time>
      </trkpt>
      <trkpt lat="42.43153" lon="0.08066">
        <ele>577.1</ele>
        <time>2016-07-31T10:47:32Z</time>
      </trkpt>
      <trkpt lat="42.43148" lon="0.08068">
        <ele>577.3</ele>
        <time>2016-07-31T10:47:33Z</time>
      </trkpt>
      <trkpt lat="42.43144" lon="0.08071">
        <ele>577.4</ele>
        <time>2016-07-31T10:47:34Z</time>
      </trkpt>
      <trkpt lat="42.43139" lon="0.08074">
        <ele>577.5</ele>
        <time>2016-07-31T10:47:35Z</time>
      </trkpt>
      <trkpt lat="42.43134" lon="0.08076">
        <ele>577.7</ele>
        <time>2016-07-31T10:47:36Z</time>
      </trkpt>
      <trkpt lat="42.4313" lon="0.08078">
        <ele>577.8</ele>
        <time>2016-07-31T10:47:37Z</time>
      </trkpt>
      <trkpt lat="42.43125" lon="0.08081">
        <ele>577.9</ele>
        <time>2016-07-31T10:47:38Z</time>
      </trkpt>
      <trkpt lat="42.4312" lon="0.08083">
        <ele>578.4</ele>
        <time>2016-07-31T10:47:39Z</time>
      </trkpt>
      <trkpt lat="42.43115" lon="0.08086">
        <ele>578.8</ele>
        <time>2016-07-31T10:47:40Z</time>
      </trkpt>
      <trkpt lat="42.43111" lon="0.08088">
        <ele>579.2</ele>
        <time>2016-07-31T10:47:41Z</time>
      </trkpt>
      <trkpt lat="42.43107" lon="0.0809">
        <ele>579.6</ele>
        <time>2016-07-31T10:47:42Z</time>
      </trkpt>
      <trkpt lat="42.43103" lon="0.08092">
        <ele>579.9</ele>
        <time>2016-07-31T10:47:43Z</time>
      </trkpt>
      <trkpt lat="42.43098" lon="0.08094">
        <ele>580.2</ele>
        <time>2016-07-31T10:47:44Z</time>
      </trkpt>
      <trkpt lat="42.43094" lon="0.08096">
        <ele>580.5</ele>
        <time>2016-07-31T10:47:45Z</time>
      </trkpt>
      <trkpt lat="42.4309" lon="0.08099">
        <ele>580.7</ele>
        <time>2016-07-31T10:47:46Z</time>
      </trkpt>
      <trkpt lat="42.43085" lon="0.08101">
        <ele>580.9</ele>
        <time>2016-07-31T10:47:47Z</time>
      </trkpt>
      <trkpt lat="42.43081" lon="0.08104">
        <ele>581.2</ele>
        <time>2016-07-31T10:47:48Z</time>
      </trkpt>
      <trkpt lat="42.43077" lon="0.08106">
        <ele>581.3</ele>
        <time>2016-07-31T10:47:49Z</time>
      </trkpt>
      <trkpt lat="42.43072" lon="0.08108">
        <ele>581.5</ele>
        <time>2016-07-31T10:47:50Z</time>
      </trkpt>
      <trkpt lat="42.43068" lon="0.0811">
        <ele>581.7</ele>
        <time>2016-07-31T10:47:51Z</time>
      </trkpt>
      <trkpt lat="42.43064" lon="0.08112">
        <ele>581.8</ele>
        <time>2016-07-31T10:47:52Z</time>
      </trkpt>
      <trkpt lat="42.4306" lon="0.08114">
        <ele>581.9</ele>
        <time>2016-07-31T10:47:53Z</time>
      </trkpt>
      <trkpt lat="42.43056" lon="0.08117">
        <ele>582</ele>
        <time>2016-07-31T10:47:54Z</time>
      </trkpt>
      <trkpt lat="42.43052" lon="0.08119">
        <ele>582</ele>
        <time>2016-07-31T10:47:55Z</time>
      </trkpt>
      <trkpt lat="42.43048" lon="0.08121">
        <ele>582</ele>
        <time>2016-07-31T10:47:56Z</time>
      </trkpt>
      <trkpt lat="42.43044" lon="0.08123">
        <ele>582</ele>
        <time>2016-07-31T10:47:57Z</time>
      </trkpt>
      <trkpt lat="42.4304" lon="0.08125">
        <ele>582.3</ele>
        <time>2016-07-31T10:47:58Z</time>
      </trkpt>
      <trkpt lat="42.43037" lon="0.08127">
        <ele>582.9</ele>
        <time>2016-07-31T10:47:59Z</time>
      </trkpt>
      <trkpt lat="42.43034" lon="0.08129">
        <ele>583.5</ele>
        <time>2016-07-31T10:48:00Z</time>
      </trkpt>
      <trkpt lat="42.4303" lon="0.08131">
        <ele>584.2</ele>
        <time>2016-07-31T10:48:01Z</time>
      </trkpt>
      <trkpt lat="42.43027" lon="0.08134">
        <ele>584.8</ele>
        <time>2016-07-31T10:48:02Z</time>
      </trkpt>
      <trkpt lat="42.43023" lon="0.08136">
        <ele>585.4</ele>
        <time>2016-07-31T10:48:03Z</time>
      </trkpt>
      <trkpt lat="42.43019" lon="0.08138">
        <ele>586</ele>
        <time>2016-07-31T10:48:04Z</time>
      </trkpt>
      <trkpt lat="42.43015" lon="0.08141">
        <ele>586.6</ele>
        <time>2016-07-31T10:48:05Z</time>
      </trkpt>
      <trkpt lat="42.43011" lon="0.08144">
        <ele>587.1</ele>
        <time>2016-07-31T10:48:06Z</time>
      </trkpt>
      <trkpt lat="42.43007" lon="0.08147">
        <ele>587.5</ele>
        <time>2016-07-31T10:48:07Z</time>
      </trkpt>
      <trkpt lat="42.43004" lon="0.0815">
        <ele>587.9</ele>
        <time>2016-07-31T10:48:08Z</time>
      </trkpt>
      <trkpt lat="42.43001" lon="0.08153">
        <ele>588.2</ele>
        <time>2016-07-31T10:48:09Z</time>
      </trkpt>
      <trkpt lat="42.42998" lon="0.08155">
        <ele>588.5</ele>
        <time>2016-07-31T10:48:10Z</time>
      </trkpt>
      <trkpt lat="42.42994" lon="0.08158">
        <ele>588.8</ele>
        <time>2016-07-31T10:48:11Z</time>
      </trkpt>
      <trkpt lat="42.42991" lon="0.08161">
        <ele>589</ele>
        <time>2016-07-31T10:48:12Z</time>
      </trkpt>
      <trkpt lat="42.42988" lon="0.08164">
        <ele>589.2</ele>
        <time>2016-07-31T10:48:13Z</time>
      </trkpt>
      <trkpt lat="42.42984" lon="0.08167">
        <ele>589.4</ele>
        <time>2016-07-31T10:48:14Z</time>
      </trkpt>
      <trkpt lat="42.42981" lon="0.0817">
        <ele>589.5</ele>
        <time>2016-07-31T10:48:15Z</time>
      </trkpt>
      <trkpt lat="42.42978" lon="0.08174">
        <ele>589.6</ele>
        <time>2016-07-31T10:48:16Z</time>
      </trkpt>
      <trkpt lat="42.42975" lon="0.08178">
        <ele>589.4</ele>
        <time>2016-07-31T10:48:17Z</time>
      </trkpt>
      <trkpt lat="42.42972" lon="0.08182">
        <ele>589.2</ele>
        <time>2016-07-31T10:48:18Z</time>
      </trkpt>
      <trkpt lat="42.4297" lon="0.08187">
        <ele>588.8</ele>
        <time>2016-07-31T10:48:19Z</time>
      </trkpt>
      <trkpt lat="42.42968" lon="0.08193">
        <ele>588.3</ele>
        <time>2016-07-31T10:48:20Z</time>
      </trkpt>
      <trkpt lat="42.42966" lon="0.08198">
        <ele>587.8</ele>
        <time>2016-07-31T10:48:21Z</time>
      </trkpt>
      <trkpt lat="42.42964" lon="0.08202">
        <ele>587.4</ele>
        <time>2016-07-31T10:48:22Z</time>
      </trkpt>
      <trkpt lat="42.42962" lon="0.08206">
        <ele>587.1</ele>
        <time>2016-07-31T10:48:23Z</time>
      </trkpt>
      <trkpt lat="42.42959" lon="0.08208">
        <ele>587</ele>
        <time>2016-07-31T10:48:24Z</time>
      </trkpt>
      <trkpt lat="42.42955" lon="0.08208">
        <ele>587.1</ele>
        <time>2016-07-31T10:48:25Z</time>
      </trkpt>
      <trkpt lat="42.42951" lon="0.08206">
        <ele>587.4</ele>
        <time>2016-07-31T10:48:26Z</time>
      </trkpt>
      <trkpt lat="42.42947" lon="0.08203">
        <ele>587.9</ele>
        <time>2016-07-31T10:48:27Z</time>
      </trkpt>
      <trkpt lat="42.42942" lon="0.082">
        <ele>588.4</ele>
        <time>2016-07-31T10:48:28Z</time>
      </trkpt>
      <trkpt lat="42.42938" lon="0.08197">
        <ele>589</ele>
        <time>2016-07-31T10:48:29Z</time>
      </trkpt>
      <trkpt lat="42.42934" lon="0.08194">
        <ele>589.6</ele>
        <time>2016-07-31T10:48:30Z</time>
      </trkpt>
      <trkpt lat="42.42929" lon="0.08191">
        <ele>590.1</ele>
        <time>2016-07-31T10:48:31Z</time>
      </trkpt>
      <trkpt lat="42.42925" lon="0.08188">
        <ele>590.6</ele>
        <time>2016-07-31T10:48:32Z</time>
      </trkpt>
      <trkpt lat="42.42921" lon="0.08186">
        <ele>591.1</ele>
        <time>2016-07-31T10:48:33Z</time>
      </trkpt>
      <trkpt lat="42.42917" lon="0.08183">
        <ele>591.7</ele>
        <time>2016-07-31T10:48:34Z</time>
      </trkpt>
      <trkpt lat="42.42913" lon="0.08181">
        <ele>592.2</ele>
        <time>2016-07-31T10:48:35Z</time>
      </trkpt>
      <trkpt lat="42.42909" lon="0.08178">
        <ele>592.8</ele>
        <time>2016-07-31T10:48:36Z</time>
      </trkpt>
      <trkpt lat="42.42905" lon="0.08175">
        <ele>593.4</ele>
        <time>2016-07-31T10:48:37Z</time>
      </trkpt>
      <trkpt lat="42.42901" lon="0.08173">
        <ele>594</ele>
        <time>2016-07-31T10:48:38Z</time>
      </trkpt>
      <trkpt lat="42.42897" lon="0.08171">
        <ele>594.6</ele>
        <time>2016-07-31T10:48:39Z</time>
      </trkpt>
      <trkpt lat="42.42894" lon="0.08168">
        <ele>595.2</ele>
        <time>2016-07-31T10:48:40Z</time>
      </trkpt>
      <trkpt lat="42.4289" lon="0.08166">
        <ele>595.8</ele>
        <time>2016-07-31T10:48:41Z</time>
      </trkpt>
      <trkpt lat="42.42886" lon="0.08163">
        <ele>596.4</ele>
        <time>2016-07-31T10:48:42Z</time>
      </trkpt>
      <trkpt lat="42.42882" lon="0.08161">
        <ele>597.1</ele>
        <time>2016-07-31T10:48:43Z</time>
      </trkpt>
      <trkpt lat="42.42878" lon="0.08158">
        <ele>597.7</ele>
        <time>2016-07-31T10:48:44Z</time>
      </trkpt>
      <trkpt lat="42.42875" lon="0.08156">
        <ele>598.2</ele>
        <time>2016-07-31T10:48:45Z</time>
      </trkpt>
      <trkpt lat="42.42871" lon="0.08154">
        <ele>598.3</ele>
        <time>2016-07-31T10:48:46Z</time>
      </trkpt>
      <trkpt lat="42.42867" lon="0.08151">
        <ele>598.3</ele>
        <time>2016-07-31T10:48:47Z</time>
      </trkpt>
      <trkpt lat="42.42863" lon="0.08149">
        <ele>598.3</ele>
        <time>2016-07-31T10:48:48Z</time>
      </trkpt>
      <trkpt lat="42.42859" lon="0.08146">
        <ele>598.1</ele>
        <time>2016-07-31T10:48:49Z</time>
      </trkpt>
      <trkpt lat="42.42856" lon="0.08144">
        <ele>598</ele>
        <time>2016-07-31T10:48:50Z</time>
      </trkpt>
      <trkpt lat="42.42852" lon="0.08142">
        <ele>597.7</ele>
        <time>2016-07-31T10:48:51Z</time>
      </trkpt>
      <trkpt lat="42.42848" lon="0.0814">
        <ele>597.5</ele>
        <time>2016-07-31T10:48:52Z</time>
      </trkpt>
      <trkpt lat="42.42844" lon="0.08137">
        <ele>597.1</ele>
        <time>2016-07-31T10:48:53Z</time>
      </trkpt>
      <trkpt lat="42.4284" lon="0.08135">
        <ele>596.8</ele>
        <time>2016-07-31T10:48:54Z</time>
      </trkpt>
      <trkpt lat="42.42837" lon="0.08133">
        <ele>596.4</ele>
        <time>2016-07-31T10:48:55Z</time>
      </trkpt>
      <trkpt lat="42.42833" lon="0.08131">
        <ele>595.9</ele>
        <time>2016-07-31T10:48:56Z</time>
      </trkpt>
      <trkpt lat="42.4283" lon="0.08129">
        <ele>595.4</ele>
        <time>2016-07-31T10:48:57Z</time>
      </trkpt>
      <trkpt lat="42.42826" lon="0.08127">
        <ele>594.9</ele>
        <time>2016-07-31T10:48:58Z</time>
      </trkpt>
      <trkpt lat="42.42823" lon="0.08124">
        <ele>594.4</ele>
        <time>2016-07-31T10:48:59Z</time>
      </trkpt>
      <trkpt lat="42.42819" lon="0.08122">
        <ele>593.9</ele>
        <time>2016-07-31T10:49:00Z</time>
      </trkpt>
      <trkpt lat="42.42815" lon="0.0812">
        <ele>593.4</ele>
        <time>2016-07-31T10:49:01Z</time>
      </trkpt>
      <trkpt lat="42.42811" lon="0.08117">
        <ele>592.8</ele>
        <time>2016-07-31T10:49:02Z</time>
      </trkpt>
      <trkpt lat="42.42808" lon="0.08115">
        <ele>592.3</ele>
        <time>2016-07-31T10:49:03Z</time>
      </trkpt>
      <trkpt lat="42.42803" lon="0.08112">
        <ele>591.6</ele>
        <time>2016-07-31T10:49:04Z</time>
      </trkpt>
      <trkpt lat="42.42799" lon="0.0811">
        <ele>591</ele>
        <time>2016-07-31T10:49:05Z</time>
      </trkpt>
      <trkpt lat="42.42795" lon="0.08107">
        <ele>590.3</ele>
        <time>2016-07-31T10:49:06Z</time>
      </trkpt>
      <trkpt lat="42.42791" lon="0.08104">
        <ele>589.8</ele>
        <time>2016-07-31T10:49:07Z</time>
      </trkpt>
      <trkpt lat="42.42788" lon="0.081">
        <ele>590</ele>
        <time>2016-07-31T10:49:08Z</time>
      </trkpt>
      <trkpt lat="42.42783" lon="0.08097">
        <ele>590.1</ele>
        <time>2016-07-31T10:49:09Z</time>
      </trkpt>
      <trkpt lat="42.42779" lon="0.08093">
        <ele>590.3</ele>
        <time>2016-07-31T10:49:10Z</time>
      </trkpt>
      <trkpt lat="42.42775" lon="0.0809">
        <ele>590.4</ele>
        <time>2016-07-31T10:49:11Z</time>
      </trkpt>
      <trkpt lat="42.42771" lon="0.08086">
        <ele>590.5</ele>
        <time>2016-07-31T10:49:12Z</time>
      </trkpt>
      <trkpt lat="42.42767" lon="0.08083">
        <ele>590.5</ele>
        <time>2016-07-31T10:49:13Z</time>
      </trkpt>
      <trkpt lat="42.42764" lon="0.0808">
        <ele>590.5</ele>
        <time>2016-07-31T10:49:14Z</time>
      </trkpt>
      <trkpt lat="42.4276" lon="0.08076">
        <ele>590.5</ele>
        <time>2016-07-31T10:49:15Z</time>
      </trkpt>
      <trkpt lat="42.42756" lon="0.08073">
        <ele>590.5</ele>
        <time>2016-07-31T10:49:16Z</time>
      </trkpt>
      <trkpt lat="42.42752" lon="0.0807">
        <ele>590.4</ele>
        <time>2016-07-31T10:49:17Z</time>
      </trkpt>
      <trkpt lat="42.42749" lon="0.08066">
        <ele>590.4</ele>
        <time>2016-07-31T10:49:18Z</time>
      </trkpt>
      <trkpt lat="42.42746" lon="0.08062">
        <ele>590.4</ele>
        <time>2016-07-31T10:49:19Z</time>
      </trkpt>
      <trkpt lat="42.42743" lon="0.08057">
        <ele>590.4</ele>
        <time>2016-07-31T10:49:20Z</time>
      </trkpt>
      <trkpt lat="42.4274" lon="0.08053">
        <ele>590.3</ele>
        <time>2016-07-31T10:49:21Z</time>
      </trkpt>
      <trkpt lat="42.42738" lon="0.08048">
        <ele>590.3</ele>
        <time>2016-07-31T10:49:22Z</time>
      </trkpt>
      <trkpt lat="42.42736" lon="0.08044">
        <ele>590.2</ele>
        <time>2016-07-31T10:49:23Z</time>
      </trkpt>
      <trkpt lat="42.42734" lon="0.0804">
        <ele>590.2</ele>
        <time>2016-07-31T10:49:24Z</time>
      </trkpt>
      <trkpt lat="42.42732" lon="0.08035">
        <ele>590.1</ele>
        <time>2016-07-31T10:49:25Z</time>
      </trkpt>
      <trkpt lat="42.4273" lon="0.0803">
        <ele>590.1</ele>
        <time>2016-07-31T10:49:26Z</time>
      </trkpt>
      <trkpt lat="42.42728" lon="0.08025">
        <ele>590.1</ele>
        <time>2016-07-31T10:49:27Z</time>
      </trkpt>
      <trkpt lat="42.42727" lon="0.0802">
        <ele>590.1</ele>
        <time>2016-07-31T10:49:28Z</time>
      </trkpt>
      <trkpt lat="42.42725" lon="0.08015">
        <ele>590.1</ele>
        <time>2016-07-31T10:49:29Z</time>
      </trkpt>
      <trkpt lat="42.42724" lon="0.0801">
        <ele>590.2</ele>
        <time>2016-07-31T10:49:30Z</time>
      </trkpt>
      <trkpt lat="42.42723" lon="0.08005">
        <ele>590.2</ele>
        <time>2016-07-31T10:49:31Z</time>
      </trkpt>
      <trkpt lat="42.42721" lon="0.08">
        <ele>590.3</ele>
        <time>2016-07-31T10:49:32Z</time>
      </trkpt>
      <trkpt lat="42.4272" lon="0.07995">
        <ele>590.4</ele>
        <time>2016-07-31T10:49:33Z</time>
      </trkpt>
      <trkpt lat="42.42719" lon="0.0799">
        <ele>590.4</ele>
        <time>2016-07-31T10:49:34Z</time>
      </trkpt>
      <trkpt lat="42.42718" lon="0.07985">
        <ele>590.5</ele>
        <time>2016-07-31T10:49:35Z</time>
      </trkpt>
      <trkpt lat="42.42716" lon="0.0798">
        <ele>590.6</ele>
        <time>2016-07-31T10:49:36Z</time>
      </trkpt>
      <trkpt lat="42.42715" lon="0.07976">
        <ele>590.7</ele>
        <time>2016-07-31T10:49:37Z</time>
      </trkpt>
      <trkpt lat="42.42713" lon="0.07971">
        <ele>590.8</ele>
        <time>2016-07-31T10:49:38Z</time>
      </trkpt>
      <trkpt lat="42.42712" lon="0.07966">
        <ele>590.9</ele>
        <time>2016-07-31T10:49:39Z</time>
      </trkpt>
      <trkpt lat="42.42711" lon="0.07961">
        <ele>591</ele>
        <time>2016-07-31T10:49:40Z</time>
      </trkpt>
      <trkpt lat="42.4271" lon="0.07956">
        <ele>591.1</ele>
        <time>2016-07-31T10:49:41Z</time>
      </trkpt>
      <trkpt lat="42.42708" lon="0.07952">
        <ele>591.2</ele>
        <time>2016-07-31T10:49:42Z</time>
      </trkpt>
      <trkpt lat="42.42707" lon="0.07948">
        <ele>591.6</ele>
        <time>2016-07-31T10:49:43Z</time>
      </trkpt>
      <trkpt lat="42.42705" lon="0.07943">
        <ele>592</ele>
        <time>2016-07-31T10:49:44Z</time>
      </trkpt>
      <trkpt lat="42.42704" lon="0.07939">
        <ele>592.5</ele>
        <time>2016-07-31T10:49:45Z</time>
      </trkpt>
      <trkpt lat="42.42702" lon="0.07934">
        <ele>592.9</ele>
        <time>2016-07-31T10:49:46Z</time>
      </trkpt>
      <trkpt lat="42.42701" lon="0.0793">
        <ele>593.3</ele>
        <time>2016-07-31T10:49:47Z</time>
      </trkpt>
      <trkpt lat="42.42699" lon="0.07926">
        <ele>593.6</ele>
        <time>2016-07-31T10:49:48Z</time>
      </trkpt>
      <trkpt lat="42.42698" lon="0.07922">
        <ele>593.9</ele>
        <time>2016-07-31T10:49:49Z</time>
      </trkpt>
      <trkpt lat="42.42696" lon="0.07918">
        <ele>594.2</ele>
        <time>2016-07-31T10:49:50Z</time>
      </trkpt>
      <trkpt lat="42.42695" lon="0.07915">
        <ele>594.6</ele>
        <time>2016-07-31T10:49:51Z</time>
      </trkpt>
      <trkpt lat="42.42693" lon="0.07911">
        <ele>595</ele>
        <time>2016-07-31T10:49:52Z</time>
      </trkpt>
      <trkpt lat="42.4269" lon="0.07907">
        <ele>595.4</ele>
        <time>2016-07-31T10:49:53Z</time>
      </trkpt>
      <trkpt lat="42.42687" lon="0.07902">
        <ele>595.9</ele>
        <time>2016-07-31T10:49:54Z</time>
      </trkpt>
      <trkpt lat="42.42683" lon="0.07897">
        <ele>596.5</ele>
        <time>2016-07-31T10:49:55Z</time>
      </trkpt>
      <trkpt lat="42.42679" lon="0.07892">
        <ele>597.1</ele>
        <time>2016-07-31T10:49:56Z</time>
      </trkpt>
      <trkpt lat="42.42675" lon="0.07887">
        <ele>597.6</ele>
        <time>2016-07-31T10:49:57Z</time>
      </trkpt>
      <trkpt lat="42.42671" lon="0.07881">
        <ele>598</ele>
        <time>2016-07-31T10:49:58Z</time>
      </trkpt>
      <trkpt lat="42.42667" lon="0.07876">
        <ele>598.4</ele>
        <time>2016-07-31T10:49:59Z</time>
      </trkpt>
      <trkpt lat="42.42663" lon="0.07872">
        <ele>598.8</ele>
        <time>2016-07-31T10:50:00Z</time>
      </trkpt>
      <trkpt lat="42.42659" lon="0.07869">
        <ele>599.2</ele>
        <time>2016-07-31T10:50:01Z</time>
      </trkpt>
      <trkpt lat="42.42656" lon="0.07867">
        <ele>599.4</ele>
        <time>2016-07-31T10:50:02Z</time>
      </trkpt>
      <trkpt lat="42.42652" lon="0.07864">
        <ele>599.6</ele>
        <time>2016-07-31T10:50:03Z</time>
      </trkpt>
      <trkpt lat="42.4265" lon="0.0786">
        <ele>599.7</ele>
        <time>2016-07-31T10:50:04Z</time>
      </trkpt>
      <trkpt lat="42.42647" lon="0.07856">
        <ele>599.7</ele>
        <time>2016-07-31T10:50:05Z</time>
      </trkpt>
      <trkpt lat="42.42645" lon="0.07853">
        <ele>599.7</ele>
        <time>2016-07-31T10:50:06Z</time>
      </trkpt>
      <trkpt lat="42.42642" lon="0.07849">
        <ele>599.6</ele>
        <time>2016-07-31T10:50:07Z</time>
      </trkpt>
      <trkpt lat="42.4264" lon="0.07846">
        <ele>599.5</ele>
        <time>2016-07-31T10:50:08Z</time>
      </trkpt>
      <trkpt lat="42.42637" lon="0.07843">
        <ele>599.5</ele>
        <time>2016-07-31T10:50:09Z</time>
      </trkpt>
      <trkpt lat="42.42634" lon="0.0784">
        <ele>599.6</ele>
        <time>2016-07-31T10:50:10Z</time>
      </trkpt>
      <trkpt lat="42.4263" lon="0.07838">
        <ele>599.7</ele>
        <time>2016-07-31T10:50:11Z</time>
      </trkpt>
      <trkpt lat="42.42626" lon="0.07837">
        <ele>599.8</ele>
        <time>2016-07-31T10:50:12Z</time>
      </trkpt>
      <trkpt lat="42.42622" lon="0.07836">
        <ele>600.6</ele>
        <time>2016-07-31T10:50:13Z</time>
      </trkpt>
      <trkpt lat="42.42619" lon="0.07835">
        <ele>601.7</ele>
        <time>2016-07-31T10:50:14Z</time>
      </trkpt>
      <trkpt lat="42.42615" lon="0.07833">
        <ele>602.7</ele>
        <time>2016-07-31T10:50:15Z</time>
      </trkpt>
      <trkpt lat="42.42611" lon="0.07832">
        <ele>603.8</ele>
        <time>2016-07-31T10:50:16Z</time>
      </trkpt>
      <trkpt lat="42.42607" lon="0.0783">
        <ele>604.8</ele>
        <time>2016-07-31T10:50:17Z</time>
      </trkpt>
      <trkpt lat="42.42603" lon="0.07828">
        <ele>605.8</ele>
        <time>2016-07-31T10:50:18Z</time>
      </trkpt>
      <trkpt lat="42.42599" lon="0.07826">
        <ele>606.7</ele>
        <time>2016-07-31T10:50:19Z</time>
      </trkpt>
      <trkpt lat="42.42596" lon="0.07824">
        <ele>607.5</ele>
        <time>2016-07-31T10:50:20Z</time>
      </trkpt>
      <trkpt lat="42.42592" lon="0.07822">
        <ele>608.4</ele>
        <time>2016-07-31T10:50:21Z</time>
      </trkpt>
      <trkpt lat="42.42588" lon="0.0782">
        <ele>609.2</ele>
        <time>2016-07-31T10:50:22Z</time>
      </trkpt>
      <trkpt lat="42.42585" lon="0.07818">
        <ele>610.1</ele>
        <time>2016-07-31T10:50:23Z</time>
      </trkpt>
      <trkpt lat="42.42582" lon="0.07816">
        <ele>610.8</ele>
        <time>2016-07-31T10:50:24Z</time>
      </trkpt>
      <trkpt lat="42.42579" lon="0.07814">
        <ele>611.3</ele>
        <time>2016-07-31T10:50:25Z</time>
      </trkpt>
      <trkpt lat="42.42576" lon="0.07811">
        <ele>611.8</ele>
        <time>2016-07-31T10:50:26Z</time>
      </trkpt>
      <trkpt lat="42.42574" lon="0.07808">
        <ele>612.1</ele>
        <time>2016-07-31T10:50:27Z</time>
      </trkpt>
      <trkpt lat="42.42571" lon="0.07806">
        <ele>612.5</ele>
        <time>2016-07-31T10:50:28Z</time>
      </trkpt>
      <trkpt lat="42.42569" lon="0.07803">
        <ele>612.9</ele>
        <time>2016-07-31T10:50:29Z</time>
      </trkpt>
      <trkpt lat="42.42566" lon="0.07801">
        <ele>613.3</ele>
        <time>2016-07-31T10:50:30Z</time>
      </trkpt>
      <trkpt lat="42.42564" lon="0.07799">
        <ele>613.7</ele>
        <time>2016-07-31T10:50:31Z</time>
      </trkpt>
      <trkpt lat="42.4256" lon="0.07794">
        <ele>613.9</ele>
        <time>2016-07-31T10:50:33Z</time>
      </trkpt>
      <trkpt lat="42.42558" lon="0.07788">
        <ele>613.9</ele>
        <time>2016-07-31T10:50:35Z</time>
      </trkpt>
      <trkpt lat="42.42556" lon="0.07785">
        <ele>614</ele>
        <time>2016-07-31T10:50:36Z</time>
      </trkpt>
      <trkpt lat="42.42554" lon="0.07782">
        <ele>614.2</ele>
        <time>2016-07-31T10:50:37Z</time>
      </trkpt>
      <trkpt lat="42.42553" lon="0.07779">
        <ele>614.3</ele>
        <time>2016-07-31T10:50:38Z</time>
      </trkpt>
      <trkpt lat="42.4255" lon="0.07776">
        <ele>614.5</ele>
        <time>2016-07-31T10:50:39Z</time>
      </trkpt>
      <trkpt lat="42.42548" lon="0.07773">
        <ele>614.7</ele>
        <time>2016-07-31T10:50:40Z</time>
      </trkpt>
      <trkpt lat="42.42546" lon="0.07769">
        <ele>614.8</ele>
        <time>2016-07-31T10:50:41Z</time>
      </trkpt>
      <trkpt lat="42.42543" lon="0.07766">
        <ele>614.9</ele>
        <time>2016-07-31T10:50:42Z</time>
      </trkpt>
      <trkpt lat="42.42541" lon="0.07763">
        <ele>614.9</ele>
        <time>2016-07-31T10:50:43Z</time>
      </trkpt>
      <trkpt lat="42.42539" lon="0.0776">
        <ele>614.7</ele>
        <time>2016-07-31T10:50:44Z</time>
      </trkpt>
      <trkpt lat="42.42536" lon="0.07757">
        <ele>614.5</ele>
        <time>2016-07-31T10:50:46Z</time>
      </trkpt>
      <trkpt lat="42.42533" lon="0.07754">
        <ele>614.4</ele>
        <time>2016-07-31T10:50:48Z</time>
      </trkpt>
      <trkpt lat="42.4253" lon="0.07751">
        <ele>614.1</ele>
        <time>2016-07-31T10:50:50Z</time>
      </trkpt>
      <trkpt lat="42.42528" lon="0.07746">
        <ele>613.6</ele>
        <time>2016-07-31T10:50:52Z</time>
      </trkpt>
      <trkpt lat="42.42524" lon="0.0774">
        <ele>613</ele>
        <time>2016-07-31T10:50:54Z</time>
      </trkpt>
      <trkpt lat="42.42521" lon="0.07735">
        <ele>612.4</ele>
        <time>2016-07-31T10:50:56Z</time>
      </trkpt>
      <trkpt lat="42.42519" lon="0.07729">
        <ele>611.6</ele>
        <time>2016-07-31T10:50:58Z</time>
      </trkpt>
      <trkpt lat="42.42518" lon="0.07725">
        <ele>611.1</ele>
        <time>2016-07-31T10:50:59Z</time>
      </trkpt>
      <trkpt lat="42.42518" lon="0.07719">
        <ele>610.1</ele>
        <time>2016-07-31T10:51:01Z</time>
      </trkpt>
      <trkpt lat="42.42518" lon="0.07713">
        <ele>609.1</ele>
        <time>2016-07-31T10:51:03Z</time>
      </trkpt>
      <trkpt lat="42.4252" lon="0.07708">
        <ele>608.3</ele>
        <time>2016-07-31T10:51:05Z</time>
      </trkpt>
      <trkpt lat="42.42522" lon="0.07703">
        <ele>608.4</ele>
        <time>2016-07-31T10:51:07Z</time>
      </trkpt>
      <trkpt lat="42.42523" lon="0.07696">
        <ele>608.6</ele>
        <time>2016-07-31T10:51:09Z</time>
      </trkpt>
      <trkpt lat="42.42524" lon="0.07689">
        <ele>608.7</ele>
        <time>2016-07-31T10:51:11Z</time>
      </trkpt>
      <trkpt lat="42.42526" lon="0.07684">
        <ele>608.8</ele>
        <time>2016-07-31T10:51:13Z</time>
      </trkpt>
      <trkpt lat="42.42529" lon="0.07679">
        <ele>608.7</ele>
        <time>2016-07-31T10:51:15Z</time>
      </trkpt>
      <trkpt lat="42.42532" lon="0.07675">
        <ele>608.6</ele>
        <time>2016-07-31T10:51:17Z</time>
      </trkpt>
      <trkpt lat="42.42534" lon="0.07672">
        <ele>608.6</ele>
        <time>2016-07-31T10:51:19Z</time>
      </trkpt>
      <trkpt lat="42.42535" lon="0.07668">
        <ele>608.6</ele>
        <time>2016-07-31T10:51:22Z</time>
      </trkpt>
      <trkpt lat="42.42536" lon="0.07664">
        <ele>608.6</ele>
        <time>2016-07-31T10:51:24Z</time>
      </trkpt>
      <trkpt lat="42.42535" lon="0.07659">
        <ele>608.8</ele>
        <time>2016-07-31T10:51:26Z</time>
      </trkpt>
      <trkpt lat="42.42534" lon="0.07655">
        <ele>609.1</ele>
        <time>2016-07-31T10:51:28Z</time>
      </trkpt>
      <trkpt lat="42.42531" lon="0.0765">
        <ele>609.4</ele>
        <time>2016-07-31T10:51:30Z</time>
      </trkpt>
      <trkpt lat="42.42529" lon="0.07645">
        <ele>609.8</ele>
        <time>2016-07-31T10:51:32Z</time>
      </trkpt>
      <trkpt lat="42.42528" lon="0.07638">
        <ele>610.2</ele>
        <time>2016-07-31T10:51:34Z</time>
      </trkpt>
      <trkpt lat="42.42526" lon="0.07633">
        <ele>610.7</ele>
        <time>2016-07-31T10:51:36Z</time>
      </trkpt>
      <trkpt lat="42.42524" lon="0.07629">
        <ele>610.9</ele>
        <time>2016-07-31T10:51:37Z</time>
      </trkpt>
      <trkpt lat="42.42521" lon="0.07624">
        <ele>611.7</ele>
        <time>2016-07-31T10:51:39Z</time>
      </trkpt>
      <trkpt lat="42.42518" lon="0.07621">
        <ele>613</ele>
        <time>2016-07-31T10:51:41Z</time>
      </trkpt>
      <trkpt lat="42.42515" lon="0.07619">
        <ele>613.8</ele>
        <time>2016-07-31T10:51:43Z</time>
      </trkpt>
      <trkpt lat="42.42511" lon="0.07619">
        <ele>614.3</ele>
        <time>2016-07-31T10:51:45Z</time>
      </trkpt>
      <trkpt lat="42.42508" lon="0.07621">
        <ele>614</ele>
        <time>2016-07-31T10:51:47Z</time>
      </trkpt>
      <trkpt lat="42.42504" lon="0.07624">
        <ele>613.7</ele>
        <time>2016-07-31T10:51:49Z</time>
      </trkpt>
      <trkpt lat="42.425" lon="0.07626">
        <ele>614</ele>
        <time>2016-07-31T10:51:51Z</time>
      </trkpt>
      <trkpt lat="42.42496" lon="0.07628">
        <ele>614.4</ele>
        <time>2016-07-31T10:51:53Z</time>
      </trkpt>
      <trkpt lat="42.42493" lon="0.07629">
        <ele>614.6</ele>
        <time>2016-07-31T10:51:54Z</time>
      </trkpt>
      <trkpt lat="42.4249" lon="0.0763">
        <ele>614.9</ele>
        <time>2016-07-31T10:51:55Z</time>
      </trkpt>
      <trkpt lat="42.42484" lon="0.0763">
        <ele>615.6</ele>
        <time>2016-07-31T10:51:57Z</time>
      </trkpt>
      <trkpt lat="42.42479" lon="0.07631">
        <ele>616.2</ele>
        <time>2016-07-31T10:51:59Z</time>
      </trkpt>
      <trkpt lat="42.42474" lon="0.07628">
        <ele>616.9</ele>
        <time>2016-07-31T10:52:01Z</time>
      </trkpt>
      <trkpt lat="42.42472" lon="0.07626">
        <ele>617.4</ele>
        <time>2016-07-31T10:52:02Z</time>
      </trkpt>
      <trkpt lat="42.42469" lon="0.07623">
        <ele>618.3</ele>
        <time>2016-07-31T10:52:03Z</time>
      </trkpt>
      <trkpt lat="42.42466" lon="0.0762">
        <ele>619.2</ele>
        <time>2016-07-31T10:52:04Z</time>
      </trkpt>
      <trkpt lat="42.42463" lon="0.07618">
        <ele>619.9</ele>
        <time>2016-07-31T10:52:05Z</time>
      </trkpt>
      <trkpt lat="42.4246" lon="0.07614">
        <ele>621.2</ele>
        <time>2016-07-31T10:52:07Z</time>
      </trkpt>
      <trkpt lat="42.42456" lon="0.0761">
        <ele>622.3</ele>
        <time>2016-07-31T10:52:09Z</time>
      </trkpt>
      <trkpt lat="42.42454" lon="0.07607">
        <ele>622.9</ele>
        <time>2016-07-31T10:52:10Z</time>
      </trkpt>
      <trkpt lat="42.42451" lon="0.07603">
        <ele>623.9</ele>
        <time>2016-07-31T10:52:12Z</time>
      </trkpt>
      <trkpt lat="42.42448" lon="0.07601">
        <ele>624.3</ele>
        <time>2016-07-31T10:52:14Z</time>
      </trkpt>
      <trkpt lat="42.42445" lon="0.07601">
        <ele>624.3</ele>
        <time>2016-07-31T10:52:16Z</time>
      </trkpt>
      <trkpt lat="42.42442" lon="0.07602">
        <ele>624.2</ele>
        <time>2016-07-31T10:52:18Z</time>
      </trkpt>
      <trkpt lat="42.42438" lon="0.07603">
        <ele>624.1</ele>
        <time>2016-07-31T10:52:20Z</time>
      </trkpt>
      <trkpt lat="42.42435" lon="0.07604">
        <ele>623.8</ele>
        <time>2016-07-31T10:52:22Z</time>
      </trkpt>
      <trkpt lat="42.42431" lon="0.07606">
        <ele>623.4</ele>
        <time>2016-07-31T10:52:24Z</time>
      </trkpt>
      <trkpt lat="42.42428" lon="0.07608">
        <ele>623</ele>
        <time>2016-07-31T10:52:26Z</time>
      </trkpt>
      <trkpt lat="42.42426" lon="0.07609">
        <ele>622.6</ele>
        <time>2016-07-31T10:52:28Z</time>
      </trkpt>
      <trkpt lat="42.42423" lon="0.0761">
        <ele>622.5</ele>
        <time>2016-07-31T10:52:30Z</time>
      </trkpt>
      <trkpt lat="42.4242" lon="0.07611">
        <ele>622.4</ele>
        <time>2016-07-31T10:52:32Z</time>
      </trkpt>
      <trkpt lat="42.42417" lon="0.07612">
        <ele>622.1</ele>
        <time>2016-07-31T10:52:34Z</time>
      </trkpt>
      <trkpt lat="42.42414" lon="0.07612">
        <ele>622</ele>
        <time>2016-07-31T10:52:36Z</time>
      </trkpt>
      <trkpt lat="42.42411" lon="0.07612">
        <ele>622.1</ele>
        <time>2016-07-31T10:52:38Z</time>
      </trkpt>
      <trkpt lat="42.42408" lon="0.07612">
        <ele>622.2</ele>
        <time>2016-07-31T10:52:40Z</time>
      </trkpt>
      <trkpt lat="42.42405" lon="0.07612">
        <ele>622.1</ele>
        <time>2016-07-31T10:52:42Z</time>
      </trkpt>
      <trkpt lat="42.42402" lon="0.07611">
        <ele>622.4</ele>
        <time>2016-07-31T10:52:44Z</time>
      </trkpt>
      <trkpt lat="42.424" lon="0.07609">
        <ele>622.9</ele>
        <time>2016-07-31T10:52:46Z</time>
      </trkpt>
      <trkpt lat="42.42397" lon="0.07607">
        <ele>623.3</ele>
        <time>2016-07-31T10:52:48Z</time>
      </trkpt>
      <trkpt lat="42.42394" lon="0.07606">
        <ele>623.6</ele>
        <time>2016-07-31T10:52:51Z</time>
      </trkpt>
      <trkpt lat="42.4239" lon="0.07605">
        <ele>623.9</ele>
        <time>2016-07-31T10:52:54Z</time>
      </trkpt>
      <trkpt lat="42.42387" lon="0.07603">
        <ele>624.4</ele>
        <time>2016-07-31T10:52:57Z</time>
      </trkpt>
      <trkpt lat="42.42385" lon="0.076">
        <ele>625.1</ele>
        <time>2016-07-31T10:53:00Z</time>
      </trkpt>
      <trkpt lat="42.42383" lon="0.07596">
        <ele>626.1</ele>
        <time>2016-07-31T10:53:03Z</time>
      </trkpt>
      <trkpt lat="42.4238" lon="0.07592">
        <ele>627.1</ele>
        <time>2016-07-31T10:53:06Z</time>
      </trkpt>
      <trkpt lat="42.42378" lon="0.07589">
        <ele>628.1</ele>
        <time>2016-07-31T10:53:09Z</time>
      </trkpt>
      <trkpt lat="42.42375" lon="0.07585">
        <ele>629</ele>
        <time>2016-07-31T10:53:12Z</time>
      </trkpt>
      <trkpt lat="42.42373" lon="0.07583">
        <ele>629.4</ele>
        <time>2016-07-31T10:53:14Z</time>
      </trkpt>
      <trkpt lat="42.4237" lon="0.07581">
        <ele>629.9</ele>
        <time>2016-07-31T10:53:17Z</time>
      </trkpt>
      <trkpt lat="42.42366" lon="0.07578">
        <ele>630.4</ele>
        <time>2016-07-31T10:53:20Z</time>
      </trkpt>
      <trkpt lat="42.42364" lon="0.07575">
        <ele>630.8</ele>
        <time>2016-07-31T10:53:22Z</time>
      </trkpt>
      <trkpt lat="42.42361" lon="0.07572">
        <ele>631.3</ele>
        <time>2016-07-31T10:53:25Z</time>
      </trkpt>
      <trkpt lat="42.42358" lon="0.07568">
        <ele>632.1</ele>
        <time>2016-07-31T10:53:28Z</time>
      </trkpt>
      <trkpt lat="42.42356" lon="0.07564">
        <ele>632.9</ele>
        <time>2016-07-31T10:53:31Z</time>
      </trkpt>
      <trkpt lat="42.42353" lon="0.07561">
        <ele>633.3</ele>
        <time>2016-07-31T10:53:34Z</time>
      </trkpt>
      <trkpt lat="42.4235" lon="0.0756">
        <ele>633.2</ele>
        <time>2016-07-31T10:53:36Z</time>
      </trkpt>
      <trkpt lat="42.42348" lon="0.07561">
        <ele>632.8</ele>
        <time>2016-07-31T10:53:38Z</time>
      </trkpt>
      <trkpt lat="42.42345" lon="0.07559">
        <ele>633</ele>
        <time>2016-07-31T10:53:41Z</time>
      </trkpt>
      <trkpt lat="42.42343" lon="0.07555">
        <ele>633.6</ele>
        <time>2016-07-31T10:53:44Z</time>
      </trkpt>
      <trkpt lat="42.4234" lon="0.07552">
        <ele>634.1</ele>
        <time>2016-07-31T10:53:47Z</time>
      </trkpt>
      <trkpt lat="42.42337" lon="0.07549">
        <ele>634.3</ele>
        <time>2016-07-31T10:53:50Z</time>
      </trkpt>
      <trkpt lat="42.42334" lon="0.07546">
        <ele>634.7</ele>
        <time>2016-07-31T10:53:53Z</time>
      </trkpt>
      <trkpt lat="42.42332" lon="0.07541">
        <ele>635.4</ele>
        <time>2016-07-31T10:53:56Z</time>
      </trkpt>
      <trkpt lat="42.4233" lon="0.07536">
        <ele>636</ele>
        <time>2016-07-31T10:53:59Z</time>
      </trkpt>
      <trkpt lat="42.42328" lon="0.07533">
        <ele>636.3</ele>
        <time>2016-07-31T10:54:01Z</time>
      </trkpt>
      <trkpt lat="42.42327" lon="0.0753">
        <ele>636.6</ele>
        <time>2016-07-31T10:54:03Z</time>
      </trkpt>
      <trkpt lat="42.42325" lon="0.07527">
        <ele>636.9</ele>
        <time>2016-07-31T10:54:05Z</time>
      </trkpt>
      <trkpt lat="42.42323" lon="0.07523">
        <ele>637.4</ele>
        <time>2016-07-31T10:54:08Z</time>
      </trkpt>
      <trkpt lat="42.4232" lon="0.07519">
        <ele>637.9</ele>
        <time>2016-07-31T10:54:11Z</time>
      </trkpt>
      <trkpt lat="42.42318" lon="0.07516">
        <ele>638.3</ele>
        <time>2016-07-31T10:54:13Z</time>
      </trkpt>
      <trkpt lat="42.42317" lon="0.07513">
        <ele>638.6</ele>
        <time>2016-07-31T10:54:15Z</time>
      </trkpt>
      <trkpt lat="42.42314" lon="0.07511">
        <ele>638.8</ele>
        <time>2016-07-31T10:54:17Z</time>
      </trkpt>
      <trkpt lat="42.42312" lon="0.07509">
        <ele>639.1</ele>
        <time>2016-07-31T10:54:19Z</time>
      </trkpt>
      <trkpt lat="42.4231" lon="0.07506">
        <ele>639.3</ele>
        <time>2016-07-31T10:54:21Z</time>
      </trkpt>
      <trkpt lat="42.42307" lon="0.07503">
        <ele>639.8</ele>
        <time>2016-07-31T10:54:23Z</time>
      </trkpt>
      <trkpt lat="42.42305" lon="0.075">
        <ele>640.2</ele>
        <time>2016-07-31T10:54:25Z</time>
      </trkpt>
      <trkpt lat="42.42303" lon="0.07497">
        <ele>640.7</ele>
        <time>2016-07-31T10:54:27Z</time>
      </trkpt>
      <trkpt lat="42.42301" lon="0.07494">
        <ele>641.1</ele>
        <time>2016-07-31T10:54:29Z</time>
      </trkpt>
      <trkpt lat="42.42299" lon="0.07491">
        <ele>641.6</ele>
        <time>2016-07-31T10:54:32Z</time>
      </trkpt>
      <trkpt lat="42.42296" lon="0.07488">
        <ele>642.2</ele>
        <time>2016-07-31T10:54:35Z</time>
      </trkpt>
      <trkpt lat="42.42294" lon="0.07486">
        <ele>642.5</ele>
        <time>2016-07-31T10:54:37Z</time>
      </trkpt>
      <trkpt lat="42.4229" lon="0.07484">
        <ele>642.7</ele>
        <time>2016-07-31T10:54:39Z</time>
      </trkpt>
      <trkpt lat="42.42287" lon="0.07484">
        <ele>642.8</ele>
        <time>2016-07-31T10:54:41Z</time>
      </trkpt>
      <trkpt lat="42.42284" lon="0.07483">
        <ele>642.9</ele>
        <time>2016-07-31T10:54:43Z</time>
      </trkpt>
      <trkpt lat="42.42282" lon="0.0748">
        <ele>643.5</ele>
        <time>2016-07-31T10:54:45Z</time>
      </trkpt>
      <trkpt lat="42.4228" lon="0.07477">
        <ele>644.1</ele>
        <time>2016-07-31T10:54:47Z</time>
      </trkpt>
      <trkpt lat="42.42278" lon="0.07474">
        <ele>644.7</ele>
        <time>2016-07-31T10:54:49Z</time>
      </trkpt>
      <trkpt lat="42.42277" lon="0.07471">
        <ele>645.5</ele>
        <time>2016-07-31T10:54:51Z</time>
      </trkpt>
      <trkpt lat="42.42276" lon="0.07467">
        <ele>646.4</ele>
        <time>2016-07-31T10:54:54Z</time>
      </trkpt>
      <trkpt lat="42.42275" lon="0.07463">
        <ele>647.3</ele>
        <time>2016-07-31T10:54:56Z</time>
      </trkpt>
      <trkpt lat="42.42274" lon="0.07459">
        <ele>648.2</ele>
        <time>2016-07-31T10:54:58Z</time>
      </trkpt>
      <trkpt lat="42.42272" lon="0.07455">
        <ele>648.7</ele>
        <time>2016-07-31T10:55:01Z</time>
      </trkpt>
      <trkpt lat="42.4227" lon="0.07451">
        <ele>649.2</ele>
        <time>2016-07-31T10:55:03Z</time>
      </trkpt>
      <trkpt lat="42.42269" lon="0.07448">
        <ele>649.6</ele>
        <time>2016-07-31T10:55:05Z</time>
      </trkpt>
      <trkpt lat="42.42268" lon="0.07444">
        <ele>650.2</ele>
        <time>2016-07-31T10:55:07Z</time>
      </trkpt>
      <trkpt lat="42.42268" lon="0.07439">
        <ele>650.7</ele>
        <time>2016-07-31T10:55:09Z</time>
      </trkpt>
      <trkpt lat="42.42266" lon="0.07435">
        <ele>651.3</ele>
        <time>2016-07-31T10:55:12Z</time>
      </trkpt>
      <trkpt lat="42.42265" lon="0.07431">
        <ele>651.7</ele>
        <time>2016-07-31T10:55:14Z</time>
      </trkpt>
      <trkpt lat="42.42264" lon="0.07428">
        <ele>652</ele>
        <time>2016-07-31T10:55:16Z</time>
      </trkpt>
      <trkpt lat="42.42261" lon="0.07424">
        <ele>652.5</ele>
        <time>2016-07-31T10:55:19Z</time>
      </trkpt>
      <trkpt lat="42.42258" lon="0.07422">
        <ele>652.8</ele>
        <time>2016-07-31T10:55:22Z</time>
      </trkpt>
      <trkpt lat="42.42255" lon="0.07422">
        <ele>652.7</ele>
        <time>2016-07-31T10:55:24Z</time>
      </trkpt>
      <trkpt lat="42.42252" lon="0.07422">
        <ele>652.7</ele>
        <time>2016-07-31T10:55:26Z</time>
      </trkpt>
      <trkpt lat="42.42249" lon="0.0742">
        <ele>652.8</ele>
        <time>2016-07-31T10:55:28Z</time>
      </trkpt>
      <trkpt lat="42.42246" lon="0.07419">
        <ele>652.9</ele>
        <time>2016-07-31T10:55:30Z</time>
      </trkpt>
      <trkpt lat="42.42243" lon="0.07417">
        <ele>653.1</ele>
        <time>2016-07-31T10:55:32Z</time>
      </trkpt>
      <trkpt lat="42.42241" lon="0.07415">
        <ele>653.2</ele>
        <time>2016-07-31T10:55:34Z</time>
      </trkpt>
      <trkpt lat="42.42239" lon="0.07411">
        <ele>653.7</ele>
        <time>2016-07-31T10:55:37Z</time>
      </trkpt>
      <trkpt lat="42.42239" lon="0.07405">
        <ele>654.3</ele>
        <time>2016-07-31T10:55:40Z</time>
      </trkpt>
      <trkpt lat="42.4224" lon="0.07402">
        <ele>654.7</ele>
        <time>2016-07-31T10:55:42Z</time>
      </trkpt>
      <trkpt lat="42.42239" lon="0.07398">
        <ele>655</ele>
        <time>2016-07-31T10:55:44Z</time>
      </trkpt>
      <trkpt lat="42.42238" lon="0.07394">
        <ele>655.4</ele>
        <time>2016-07-31T10:55:47Z</time>
      </trkpt>
      <trkpt lat="42.42236" lon="0.07389">
        <ele>655.8</ele>
        <time>2016-07-31T10:55:50Z</time>
      </trkpt>
      <trkpt lat="42.42235" lon="0.07384">
        <ele>656.3</ele>
        <time>2016-07-31T10:55:53Z</time>
      </trkpt>
      <trkpt lat="42.42235" lon="0.0738">
        <ele>656.8</ele>
        <time>2016-07-31T10:55:55Z</time>
      </trkpt>
      <trkpt lat="42.42234" lon="0.07376">
        <ele>657.2</ele>
        <time>2016-07-31T10:55:57Z</time>
      </trkpt>
      <trkpt lat="42.42234" lon="0.07372">
        <ele>657.6</ele>
        <time>2016-07-31T10:55:59Z</time>
      </trkpt>
      <trkpt lat="42.42233" lon="0.07368">
        <ele>658.1</ele>
        <time>2016-07-31T10:56:01Z</time>
      </trkpt>
      <trkpt lat="42.42232" lon="0.07365">
        <ele>658.5</ele>
        <time>2016-07-31T10:56:03Z</time>
      </trkpt>
      <trkpt lat="42.42232" lon="0.07359">
        <ele>659.3</ele>
        <time>2016-07-31T10:56:06Z</time>
      </trkpt>
      <trkpt lat="42.42231" lon="0.07355">
        <ele>659.9</ele>
        <time>2016-07-31T10:56:09Z</time>
      </trkpt>
      <trkpt lat="42.42231" lon="0.07349">
        <ele>660.6</ele>
        <time>2016-07-31T10:56:12Z</time>
      </trkpt>
      <trkpt lat="42.42231" lon="0.07345">
        <ele>661.1</ele>
        <time>2016-07-31T10:56:14Z</time>
      </trkpt>
      <trkpt lat="42.42233" lon="0.07341">
        <ele>661.8</ele>
        <time>2016-07-31T10:56:16Z</time>
      </trkpt>
      <trkpt lat="42.42234" lon="0.07337">
        <ele>662.4</ele>
        <time>2016-07-31T10:56:18Z</time>
      </trkpt>
      <trkpt lat="42.42235" lon="0.07332">
        <ele>663.1</ele>
        <time>2016-07-31T10:56:20Z</time>
      </trkpt>
      <trkpt lat="42.42236" lon="0.07328">
        <ele>663.8</ele>
        <time>2016-07-31T10:56:22Z</time>
      </trkpt>
      <trkpt lat="42.42237" lon="0.07324">
        <ele>664.4</ele>
        <time>2016-07-31T10:56:24Z</time>
      </trkpt>
      <trkpt lat="42.42238" lon="0.0732">
        <ele>665</ele>
        <time>2016-07-31T10:56:26Z</time>
      </trkpt>
      <trkpt lat="42.42239" lon="0.07316">
        <ele>665.5</ele>
        <time>2016-07-31T10:56:28Z</time>
      </trkpt>
      <trkpt lat="42.42238" lon="0.07312">
        <ele>666</ele>
        <time>2016-07-31T10:56:30Z</time>
      </trkpt>
      <trkpt lat="42.42236" lon="0.07309">
        <ele>666.4</ele>
        <time>2016-07-31T10:56:32Z</time>
      </trkpt>
      <trkpt lat="42.42235" lon="0.07305">
        <ele>666.7</ele>
        <time>2016-07-31T10:56:34Z</time>
      </trkpt>
      <trkpt lat="42.42233" lon="0.07301">
        <ele>667.2</ele>
        <time>2016-07-31T10:56:36Z</time>
      </trkpt>
      <trkpt lat="42.42231" lon="0.07297">
        <ele>667.6</ele>
        <time>2016-07-31T10:56:38Z</time>
      </trkpt>
      <trkpt lat="42.42229" lon="0.07293">
        <ele>668</ele>
        <time>2016-07-31T10:56:40Z</time>
      </trkpt>
      <trkpt lat="42.42227" lon="0.0729">
        <ele>668.5</ele>
        <time>2016-07-31T10:56:42Z</time>
      </trkpt>
      <trkpt lat="42.42225" lon="0.07286">
        <ele>668.9</ele>
        <time>2016-07-31T10:56:44Z</time>
      </trkpt>
      <trkpt lat="42.42222" lon="0.07283">
        <ele>669.4</ele>
        <time>2016-07-31T10:56:46Z</time>
      </trkpt>
      <trkpt lat="42.42219" lon="0.07279">
        <ele>669.9</ele>
        <time>2016-07-31T10:56:48Z</time>
      </trkpt>
      <trkpt lat="42.42217" lon="0.07274">
        <ele>670.6</ele>
        <time>2016-07-31T10:56:50Z</time>
      </trkpt>
      <trkpt lat="42.42216" lon="0.07269">
        <ele>671.4</ele>
        <time>2016-07-31T10:56:52Z</time>
      </trkpt>
      <trkpt lat="42.42214" lon="0.07263">
        <ele>672.3</ele>
        <time>2016-07-31T10:56:54Z</time>
      </trkpt>
      <trkpt lat="42.42213" lon="0.07257">
        <ele>673.2</ele>
        <time>2016-07-31T10:56:56Z</time>
      </trkpt>
      <trkpt lat="42.42211" lon="0.07252">
        <ele>674</ele>
        <time>2016-07-31T10:56:58Z</time>
      </trkpt>
      <trkpt lat="42.42209" lon="0.07246">
        <ele>674.8</ele>
        <time>2016-07-31T10:57:00Z</time>
      </trkpt>
      <trkpt lat="42.42207" lon="0.0724">
        <ele>675.5</ele>
        <time>2016-07-31T10:57:02Z</time>
      </trkpt>
      <trkpt lat="42.42205" lon="0.07234">
        <ele>676.1</ele>
        <time>2016-07-31T10:57:04Z</time>
      </trkpt>
      <trkpt lat="42.42203" lon="0.07228">
        <ele>676.7</ele>
        <time>2016-07-31T10:57:06Z</time>
      </trkpt>
      <trkpt lat="42.422" lon="0.07222">
        <ele>677.2</ele>
        <time>2016-07-31T10:57:08Z</time>
      </trkpt>
      <trkpt lat="42.42197" lon="0.07216">
        <ele>677.7</ele>
        <time>2016-07-31T10:57:10Z</time>
      </trkpt>
      <trkpt lat="42.42193" lon="0.07211">
        <ele>677.9</ele>
        <time>2016-07-31T10:57:12Z</time>
      </trkpt>
      <trkpt lat="42.42189" lon="0.07207">
        <ele>677.9</ele>
        <time>2016-07-31T10:57:14Z</time>
      </trkpt>
      <trkpt lat="42.42187" lon="0.07205">
        <ele>677.8</ele>
        <time>2016-07-31T10:57:15Z</time>
      </trkpt>
      <trkpt lat="42.42184" lon="0.07203">
        <ele>677.7</ele>
        <time>2016-07-31T10:57:16Z</time>
      </trkpt>
      <trkpt lat="42.42181" lon="0.07201">
        <ele>677.6</ele>
        <time>2016-07-31T10:57:17Z</time>
      </trkpt>
      <trkpt lat="42.42178" lon="0.07199">
        <ele>677.4</ele>
        <time>2016-07-31T10:57:18Z</time>
      </trkpt>
      <trkpt lat="42.42175" lon="0.07197">
        <ele>677.2</ele>
        <time>2016-07-31T10:57:19Z</time>
      </trkpt>
      <trkpt lat="42.42173" lon="0.07195">
        <ele>677</ele>
        <time>2016-07-31T10:57:20Z</time>
      </trkpt>
      <trkpt lat="42.4217" lon="0.07193">
        <ele>677</ele>
        <time>2016-07-31T10:57:21Z</time>
      </trkpt>
      <trkpt lat="42.42167" lon="0.0719">
        <ele>676.9</ele>
        <time>2016-07-31T10:57:22Z</time>
      </trkpt>
      <trkpt lat="42.42165" lon="0.07188">
        <ele>676.9</ele>
        <time>2016-07-31T10:57:23Z</time>
      </trkpt>
      <trkpt lat="42.42162" lon="0.07186">
        <ele>676.7</ele>
        <time>2016-07-31T10:57:24Z</time>
      </trkpt>
      <trkpt lat="42.42159" lon="0.07184">
        <ele>676.6</ele>
        <time>2016-07-31T10:57:25Z</time>
      </trkpt>
      <trkpt lat="42.42157" lon="0.07183">
        <ele>676.4</ele>
        <time>2016-07-31T10:57:26Z</time>
      </trkpt>
      <trkpt lat="42.42154" lon="0.07182">
        <ele>676.2</ele>
        <time>2016-07-31T10:57:27Z</time>
      </trkpt>
      <trkpt lat="42.42151" lon="0.0718">
        <ele>675.9</ele>
        <time>2016-07-31T10:57:28Z</time>
      </trkpt>
      <trkpt lat="42.42148" lon="0.07179">
        <ele>675.6</ele>
        <time>2016-07-31T10:57:29Z</time>
      </trkpt>
      <trkpt lat="42.42146" lon="0.07178">
        <ele>675.3</ele>
        <time>2016-07-31T10:57:30Z</time>
      </trkpt>
      <trkpt lat="42.42143" lon="0.07177">
        <ele>675</ele>
        <time>2016-07-31T10:57:31Z</time>
      </trkpt>
      <trkpt lat="42.4214" lon="0.07176">
        <ele>674.7</ele>
        <time>2016-07-31T10:57:32Z</time>
      </trkpt>
      <trkpt lat="42.42137" lon="0.07175">
        <ele>674.5</ele>
        <time>2016-07-31T10:57:33Z</time>
      </trkpt>
      <trkpt lat="42.42134" lon="0.07173">
        <ele>674.3</ele>
        <time>2016-07-31T10:57:34Z</time>
      </trkpt>
      <trkpt lat="42.42131" lon="0.07171">
        <ele>674.2</ele>
        <time>2016-07-31T10:57:35Z</time>
      </trkpt>
      <trkpt lat="42.42128" lon="0.07169">
        <ele>674.1</ele>
        <time>2016-07-31T10:57:36Z</time>
      </trkpt>
      <trkpt lat="42.42125" lon="0.07167">
        <ele>674</ele>
        <time>2016-07-31T10:57:37Z</time>
      </trkpt>
      <trkpt lat="42.42122" lon="0.07164">
        <ele>674.3</ele>
        <time>2016-07-31T10:57:38Z</time>
      </trkpt>
      <trkpt lat="42.4212" lon="0.07161">
        <ele>674.7</ele>
        <time>2016-07-31T10:57:39Z</time>
      </trkpt>
      <trkpt lat="42.42117" lon="0.07157">
        <ele>675.2</ele>
        <time>2016-07-31T10:57:40Z</time>
      </trkpt>
      <trkpt lat="42.42115" lon="0.07153">
        <ele>675.7</ele>
        <time>2016-07-31T10:57:41Z</time>
      </trkpt>
      <trkpt lat="42.42114" lon="0.07149">
        <ele>676.2</ele>
        <time>2016-07-31T10:57:42Z</time>
      </trkpt>
      <trkpt lat="42.42113" lon="0.07146">
        <ele>676.8</ele>
        <time>2016-07-31T10:57:43Z</time>
      </trkpt>
      <trkpt lat="42.42114" lon="0.07142">
        <ele>677.4</ele>
        <time>2016-07-31T10:57:44Z</time>
      </trkpt>
      <trkpt lat="42.42115" lon="0.07138">
        <ele>678.1</ele>
        <time>2016-07-31T10:57:45Z</time>
      </trkpt>
      <trkpt lat="42.42116" lon="0.07135">
        <ele>678.8</ele>
        <time>2016-07-31T10:57:46Z</time>
      </trkpt>
      <trkpt lat="42.42118" lon="0.07131">
        <ele>679.5</ele>
        <time>2016-07-31T10:57:47Z</time>
      </trkpt>
      <trkpt lat="42.4212" lon="0.07128">
        <ele>680.1</ele>
        <time>2016-07-31T10:57:48Z</time>
      </trkpt>
      <trkpt lat="42.42122" lon="0.07121">
        <ele>681.3</ele>
        <time>2016-07-31T10:57:50Z</time>
      </trkpt>
      <trkpt lat="42.42124" lon="0.07115">
        <ele>682.5</ele>
        <time>2016-07-31T10:57:52Z</time>
      </trkpt>
      <trkpt lat="42.42126" lon="0.07109">
        <ele>683.5</ele>
        <time>2016-07-31T10:57:54Z</time>
      </trkpt>
      <trkpt lat="42.42128" lon="0.07104">
        <ele>684.7</ele>
        <time>2016-07-31T10:57:56Z</time>
      </trkpt>
      <trkpt lat="42.42129" lon="0.07099">
        <ele>685.7</ele>
        <time>2016-07-31T10:57:58Z</time>
      </trkpt>
      <trkpt lat="42.42131" lon="0.07094">
        <ele>686.7</ele>
        <time>2016-07-31T10:58:00Z</time>
      </trkpt>
      <trkpt lat="42.42132" lon="0.07088">
        <ele>687.8</ele>
        <time>2016-07-31T10:58:02Z</time>
      </trkpt>
      <trkpt lat="42.42133" lon="0.07082">
        <ele>688.9</ele>
        <time>2016-07-31T10:58:04Z</time>
      </trkpt>
      <trkpt lat="42.42135" lon="0.07076">
        <ele>690</ele>
        <time>2016-07-31T10:58:06Z</time>
      </trkpt>
      <trkpt lat="42.42136" lon="0.07071">
        <ele>691</ele>
        <time>2016-07-31T10:58:08Z</time>
      </trkpt>
      <trkpt lat="42.42136" lon="0.07066">
        <ele>691.8</ele>
        <time>2016-07-31T10:58:10Z</time>
      </trkpt>
      <trkpt lat="42.42135" lon="0.07063">
        <ele>692.1</ele>
        <time>2016-07-31T10:58:12Z</time>
      </trkpt>
      <trkpt lat="42.42132" lon="0.07061">
        <ele>692</ele>
        <time>2016-07-31T10:58:14Z</time>
      </trkpt>
      <trkpt lat="42.42128" lon="0.07059">
        <ele>691.8</ele>
        <time>2016-07-31T10:58:16Z</time>
      </trkpt>
      <trkpt lat="42.42125" lon="0.07057">
        <ele>691.7</ele>
        <time>2016-07-31T10:58:19Z</time>
      </trkpt>
      <trkpt lat="42.42121" lon="0.07055">
        <ele>691.6</ele>
        <time>2016-07-31T10:58:22Z</time>
      </trkpt>
      <trkpt lat="42.42118" lon="0.07052">
        <ele>691.6</ele>
        <time>2016-07-31T10:58:25Z</time>
      </trkpt>
      <trkpt lat="42.42115" lon="0.07049">
        <ele>691.9</ele>
        <time>2016-07-31T10:58:27Z</time>
      </trkpt>
      <trkpt lat="42.42113" lon="0.07045">
        <ele>692.2</ele>
        <time>2016-07-31T10:58:29Z</time>
      </trkpt>
      <trkpt lat="42.42111" lon="0.07041">
        <ele>692.6</ele>
        <time>2016-07-31T10:58:31Z</time>
      </trkpt>
      <trkpt lat="42.42108" lon="0.07037">
        <ele>692.9</ele>
        <time>2016-07-31T10:58:33Z</time>
      </trkpt>
      <trkpt lat="42.42106" lon="0.07034">
        <ele>693.4</ele>
        <time>2016-07-31T10:58:35Z</time>
      </trkpt>
      <trkpt lat="42.42103" lon="0.0703">
        <ele>693.8</ele>
        <time>2016-07-31T10:58:37Z</time>
      </trkpt>
      <trkpt lat="42.42101" lon="0.07026">
        <ele>694.2</ele>
        <time>2016-07-31T10:58:39Z</time>
      </trkpt>
      <trkpt lat="42.42099" lon="0.07022">
        <ele>694.8</ele>
        <time>2016-07-31T10:58:41Z</time>
      </trkpt>
      <trkpt lat="42.42097" lon="0.07017">
        <ele>695.4</ele>
        <time>2016-07-31T10:58:43Z</time>
      </trkpt>
      <trkpt lat="42.42095" lon="0.07013">
        <ele>695.9</ele>
        <time>2016-07-31T10:58:45Z</time>
      </trkpt>
      <trkpt lat="42.42093" lon="0.07008">
        <ele>696.5</ele>
        <time>2016-07-31T10:58:47Z</time>
      </trkpt>
      <trkpt lat="42.42091" lon="0.07003">
        <ele>697.1</ele>
        <time>2016-07-31T10:58:49Z</time>
      </trkpt>
      <trkpt lat="42.42088" lon="0.06999">
        <ele>697.7</ele>
        <time>2016-07-31T10:58:51Z</time>
      </trkpt>
      <trkpt lat="42.42086" lon="0.06994">
        <ele>698.2</ele>
        <time>2016-07-31T10:58:53Z</time>
      </trkpt>
      <trkpt lat="42.42083" lon="0.06989">
        <ele>698.7</ele>
        <time>2016-07-31T10:58:55Z</time>
      </trkpt>
      <trkpt lat="42.42081" lon="0.06983">
        <ele>699.3</ele>
        <time>2016-07-31T10:58:57Z</time>
      </trkpt>
      <trkpt lat="42.42078" lon="0.06979">
        <ele>699.7</ele>
        <time>2016-07-31T10:58:59Z</time>
      </trkpt>
      <trkpt lat="42.42075" lon="0.06975">
        <ele>700</ele>
        <time>2016-07-31T10:59:01Z</time>
      </trkpt>
      <trkpt lat="42.42072" lon="0.0697">
        <ele>700.3</ele>
        <time>2016-07-31T10:59:03Z</time>
      </trkpt>
      <trkpt lat="42.42068" lon="0.06966">
        <ele>700.5</ele>
        <time>2016-07-31T10:59:05Z</time>
      </trkpt>
      <trkpt lat="42.42064" lon="0.06962">
        <ele>700.7</ele>
        <time>2016-07-31T10:59:07Z</time>
      </trkpt>
      <trkpt lat="42.42061" lon="0.06957">
        <ele>701.2</ele>
        <time>2016-07-31T10:59:09Z</time>
      </trkpt>
      <trkpt lat="42.42058" lon="0.06951">
        <ele>702.3</ele>
        <time>2016-07-31T10:59:11Z</time>
      </trkpt>
      <trkpt lat="42.42055" lon="0.06945">
        <ele>703.3</ele>
        <time>2016-07-31T10:59:13Z</time>
      </trkpt>
      <trkpt lat="42.42052" lon="0.0694">
        <ele>704.2</ele>
        <time>2016-07-31T10:59:15Z</time>
      </trkpt>
      <trkpt lat="42.42049" lon="0.06937">
        <ele>704.4</ele>
        <time>2016-07-31T10:59:16Z</time>
      </trkpt>
      <trkpt lat="42.42047" lon="0.06935">
        <ele>704.7</ele>
        <time>2016-07-31T10:59:17Z</time>
      </trkpt>
      <trkpt lat="42.42044" lon="0.06932">
        <ele>704.9</ele>
        <time>2016-07-31T10:59:18Z</time>
      </trkpt>
      <trkpt lat="42.42041" lon="0.0693">
        <ele>705.1</ele>
        <time>2016-07-31T10:59:19Z</time>
      </trkpt>
      <trkpt lat="42.42038" lon="0.06927">
        <ele>705.5</ele>
        <time>2016-07-31T10:59:20Z</time>
      </trkpt>
      <trkpt lat="42.42035" lon="0.06925">
        <ele>705.8</ele>
        <time>2016-07-31T10:59:21Z</time>
      </trkpt>
      <trkpt lat="42.42032" lon="0.06923">
        <ele>706.1</ele>
        <time>2016-07-31T10:59:22Z</time>
      </trkpt>
      <trkpt lat="42.42029" lon="0.06921">
        <ele>706.2</ele>
        <time>2016-07-31T10:59:23Z</time>
      </trkpt>
      <trkpt lat="42.42027" lon="0.0692">
        <ele>706.2</ele>
        <time>2016-07-31T10:59:24Z</time>
      </trkpt>
      <trkpt lat="42.42022" lon="0.06919">
        <ele>706.1</ele>
        <time>2016-07-31T10:59:26Z</time>
      </trkpt>
      <trkpt lat="42.42017" lon="0.06917">
        <ele>706.2</ele>
        <time>2016-07-31T10:59:28Z</time>
      </trkpt>
      <trkpt lat="42.42013" lon="0.06915">
        <ele>706.2</ele>
        <time>2016-07-31T10:59:30Z</time>
      </trkpt>
      <trkpt lat="42.42009" lon="0.06912">
        <ele>706.4</ele>
        <time>2016-07-31T10:59:32Z</time>
      </trkpt>
      <trkpt lat="42.42006" lon="0.06908">
        <ele>707</ele>
        <time>2016-07-31T10:59:34Z</time>
      </trkpt>
      <trkpt lat="42.42003" lon="0.06903">
        <ele>707.6</ele>
        <time>2016-07-31T10:59:36Z</time>
      </trkpt>
      <trkpt lat="42.42" lon="0.069">
        <ele>708</ele>
        <time>2016-07-31T10:59:38Z</time>
      </trkpt>
      <trkpt lat="42.41997" lon="0.06897">
        <ele>708.2</ele>
        <time>2016-07-31T10:59:40Z</time>
      </trkpt>
      <trkpt lat="42.41994" lon="0.06893">
        <ele>708.5</ele>
        <time>2016-07-31T10:59:42Z</time>
      </trkpt>
      <trkpt lat="42.41991" lon="0.0689">
        <ele>708.8</ele>
        <time>2016-07-31T10:59:44Z</time>
      </trkpt>
      <trkpt lat="42.41988" lon="0.06887">
        <ele>709.1</ele>
        <time>2016-07-31T10:59:46Z</time>
      </trkpt>
      <trkpt lat="42.41986" lon="0.06883">
        <ele>709.4</ele>
        <time>2016-07-31T10:59:48Z</time>
      </trkpt>
      <trkpt lat="42.41983" lon="0.0688">
        <ele>709.8</ele>
        <time>2016-07-31T10:59:50Z</time>
      </trkpt>
      <trkpt lat="42.41981" lon="0.06876">
        <ele>710.1</ele>
        <time>2016-07-31T10:59:52Z</time>
      </trkpt>
      <trkpt lat="42.4198" lon="0.06873">
        <ele>710.6</ele>
        <time>2016-07-31T10:59:54Z</time>
      </trkpt>
      <trkpt lat="42.41978" lon="0.06869">
        <ele>711.1</ele>
        <time>2016-07-31T10:59:56Z</time>
      </trkpt>
      <trkpt lat="42.41976" lon="0.06866">
        <ele>711.6</ele>
        <time>2016-07-31T10:59:58Z</time>
      </trkpt>
      <trkpt lat="42.41975" lon="0.06862">
        <ele>712.2</ele>
        <time>2016-07-31T11:00:00Z</time>
      </trkpt>
      <trkpt lat="42.41973" lon="0.06857">
        <ele>713.1</ele>
        <time>2016-07-31T11:00:03Z</time>
      </trkpt>
      <trkpt lat="42.41972" lon="0.06853">
        <ele>713.8</ele>
        <time>2016-07-31T11:00:05Z</time>
      </trkpt>
      <trkpt lat="42.41971" lon="0.06849">
        <ele>714.5</ele>
        <time>2016-07-31T11:00:07Z</time>
      </trkpt>
      <trkpt lat="42.4197" lon="0.06846">
        <ele>715.2</ele>
        <time>2016-07-31T11:00:09Z</time>
      </trkpt>
      <trkpt lat="42.41969" lon="0.06842">
        <ele>715.7</ele>
        <time>2016-07-31T11:00:11Z</time>
      </trkpt>
      <trkpt lat="42.41968" lon="0.06838">
        <ele>716.4</ele>
        <time>2016-07-31T11:00:13Z</time>
      </trkpt>
      <trkpt lat="42.41966" lon="0.06834">
        <ele>717.1</ele>
        <time>2016-07-31T11:00:15Z</time>
      </trkpt>
      <trkpt lat="42.41965" lon="0.0683">
        <ele>717.7</ele>
        <time>2016-07-31T11:00:17Z</time>
      </trkpt>
      <trkpt lat="42.41964" lon="0.06826">
        <ele>718.4</ele>
        <time>2016-07-31T11:00:19Z</time>
      </trkpt>
      <trkpt lat="42.41963" lon="0.06823">
        <ele>719.1</ele>
        <time>2016-07-31T11:00:21Z</time>
      </trkpt>
      <trkpt lat="42.41962" lon="0.06819">
        <ele>719.6</ele>
        <time>2016-07-31T11:00:23Z</time>
      </trkpt>
      <trkpt lat="42.4196" lon="0.06815">
        <ele>720.2</ele>
        <time>2016-07-31T11:00:25Z</time>
      </trkpt>
      <trkpt lat="42.41959" lon="0.06811">
        <ele>720.9</ele>
        <time>2016-07-31T11:00:27Z</time>
      </trkpt>
      <trkpt lat="42.41957" lon="0.06806">
        <ele>721.8</ele>
        <time>2016-07-31T11:00:29Z</time>
      </trkpt>
      <trkpt lat="42.41957" lon="0.06802">
        <ele>722.7</ele>
        <time>2016-07-31T11:00:31Z</time>
      </trkpt>
      <trkpt lat="42.41956" lon="0.06797">
        <ele>723.7</ele>
        <time>2016-07-31T11:00:33Z</time>
      </trkpt>
      <trkpt lat="42.41956" lon="0.06792">
        <ele>724.7</ele>
        <time>2016-07-31T11:00:35Z</time>
      </trkpt>
      <trkpt lat="42.41955" lon="0.06788">
        <ele>725.9</ele>
        <time>2016-07-31T11:00:37Z</time>
      </trkpt>
      <trkpt lat="42.41954" lon="0.06783">
        <ele>727.3</ele>
        <time>2016-07-31T11:00:39Z</time>
      </trkpt>
      <trkpt lat="42.41952" lon="0.06777">
        <ele>728.6</ele>
        <time>2016-07-31T11:00:41Z</time>
      </trkpt>
      <trkpt lat="42.41948" lon="0.06772">
        <ele>729.9</ele>
        <time>2016-07-31T11:00:43Z</time>
      </trkpt>
      <trkpt lat="42.41944" lon="0.0677">
        <ele>730.1</ele>
        <time>2016-07-31T11:00:45Z</time>
      </trkpt>
      <trkpt lat="42.41939" lon="0.06771">
        <ele>729.7</ele>
        <time>2016-07-31T11:00:47Z</time>
      </trkpt>
      <trkpt lat="42.41934" lon="0.0677">
        <ele>729.4</ele>
        <time>2016-07-31T11:00:49Z</time>
      </trkpt>
      <trkpt lat="42.4193" lon="0.06771">
        <ele>728.9</ele>
        <time>2016-07-31T11:00:51Z</time>
      </trkpt>
      <trkpt lat="42.41926" lon="0.06772">
        <ele>728.5</ele>
        <time>2016-07-31T11:00:53Z</time>
      </trkpt>
      <trkpt lat="42.41922" lon="0.06772">
        <ele>728.2</ele>
        <time>2016-07-31T11:00:55Z</time>
      </trkpt>
      <trkpt lat="42.41919" lon="0.06771">
        <ele>728</ele>
        <time>2016-07-31T11:00:57Z</time>
      </trkpt>
      <trkpt lat="42.41915" lon="0.0677">
        <ele>728</ele>
        <time>2016-07-31T11:00:59Z</time>
      </trkpt>
      <trkpt lat="42.41912" lon="0.0677">
        <ele>728</ele>
        <time>2016-07-31T11:01:01Z</time>
      </trkpt>
      <trkpt lat="42.41908" lon="0.06768">
        <ele>728.3</ele>
        <time>2016-07-31T11:01:03Z</time>
      </trkpt>
      <trkpt lat="42.41904" lon="0.06765">
        <ele>728.8</ele>
        <time>2016-07-31T11:01:05Z</time>
      </trkpt>
      <trkpt lat="42.419" lon="0.06762">
        <ele>729.4</ele>
        <time>2016-07-31T11:01:07Z</time>
      </trkpt>
      <trkpt lat="42.41897" lon="0.0676">
        <ele>729.7</ele>
        <time>2016-07-31T11:01:08Z</time>
      </trkpt>
      <trkpt lat="42.41895" lon="0.06758">
        <ele>730.1</ele>
        <time>2016-07-31T11:01:09Z</time>
      </trkpt>
      <trkpt lat="42.41892" lon="0.06756">
        <ele>730.4</ele>
        <time>2016-07-31T11:01:10Z</time>
      </trkpt>
      <trkpt lat="42.41888" lon="0.06753">
        <ele>731.1</ele>
        <time>2016-07-31T11:01:12Z</time>
      </trkpt>
      <trkpt lat="42.41883" lon="0.0675">
        <ele>731.7</ele>
        <time>2016-07-31T11:01:14Z</time>
      </trkpt>
      <trkpt lat="42.41881" lon="0.06748">
        <ele>731.9</ele>
        <time>2016-07-31T11:01:15Z</time>
      </trkpt>
      <trkpt lat="42.41878" lon="0.06747">
        <ele>732.2</ele>
        <time>2016-07-31T11:01:16Z</time>
      </trkpt>
      <trkpt lat="42.41876" lon="0.06745">
        <ele>732.6</ele>
        <time>2016-07-31T11:01:17Z</time>
      </trkpt>
      <trkpt lat="42.41872" lon="0.0674">
        <ele>734</ele>
        <time>2016-07-31T11:01:19Z</time>
      </trkpt>
      <trkpt lat="42.41868" lon="0.06736">
        <ele>735.2</ele>
        <time>2016-07-31T11:01:21Z</time>
      </trkpt>
      <trkpt lat="42.41866" lon="0.06734">
        <ele>735.8</ele>
        <time>2016-07-31T11:01:22Z</time>
      </trkpt>
      <trkpt lat="42.41864" lon="0.06732">
        <ele>736.4</ele>
        <time>2016-07-31T11:01:23Z</time>
      </trkpt>
      <trkpt lat="42.4186" lon="0.06727">
        <ele>737.7</ele>
        <time>2016-07-31T11:01:25Z</time>
      </trkpt>
      <trkpt lat="42.41857" lon="0.06723">
        <ele>738.9</ele>
        <time>2016-07-31T11:01:27Z</time>
      </trkpt>
      <trkpt lat="42.41853" lon="0.06719">
        <ele>739.9</ele>
        <time>2016-07-31T11:01:29Z</time>
      </trkpt>
      <trkpt lat="42.4185" lon="0.06714">
        <ele>740.9</ele>
        <time>2016-07-31T11:01:31Z</time>
      </trkpt>
      <trkpt lat="42.41847" lon="0.0671">
        <ele>742</ele>
        <time>2016-07-31T11:01:33Z</time>
      </trkpt>
      <trkpt lat="42.41844" lon="0.06705">
        <ele>743.2</ele>
        <time>2016-07-31T11:01:35Z</time>
      </trkpt>
      <trkpt lat="42.41842" lon="0.06702">
        <ele>744.2</ele>
        <time>2016-07-31T11:01:37Z</time>
      </trkpt>
      <trkpt lat="42.41839" lon="0.06698">
        <ele>745.2</ele>
        <time>2016-07-31T11:01:39Z</time>
      </trkpt>
      <trkpt lat="42.41835" lon="0.06696">
        <ele>745.8</ele>
        <time>2016-07-31T11:01:41Z</time>
      </trkpt>
      <trkpt lat="42.4183" lon="0.06694">
        <ele>746.2</ele>
        <time>2016-07-31T11:01:43Z</time>
      </trkpt>
      <trkpt lat="42.41826" lon="0.06692">
        <ele>746.6</ele>
        <time>2016-07-31T11:01:45Z</time>
      </trkpt>
      <trkpt lat="42.41821" lon="0.06691">
        <ele>746.7</ele>
        <time>2016-07-31T11:01:47Z</time>
      </trkpt>
      <trkpt lat="42.41816" lon="0.06691">
        <ele>746.6</ele>
        <time>2016-07-31T11:01:49Z</time>
      </trkpt>
      <trkpt lat="42.41811" lon="0.0669">
        <ele>746.8</ele>
        <time>2016-07-31T11:01:51Z</time>
      </trkpt>
      <trkpt lat="42.41807" lon="0.06688">
        <ele>747.4</ele>
        <time>2016-07-31T11:01:53Z</time>
      </trkpt>
      <trkpt lat="42.41804" lon="0.06686">
        <ele>747.9</ele>
        <time>2016-07-31T11:01:55Z</time>
      </trkpt>
      <trkpt lat="42.41801" lon="0.06684">
        <ele>748.3</ele>
        <time>2016-07-31T11:01:57Z</time>
      </trkpt>
      <trkpt lat="42.41796" lon="0.06683">
        <ele>748.4</ele>
        <time>2016-07-31T11:01:59Z</time>
      </trkpt>
      <trkpt lat="42.41792" lon="0.06683">
        <ele>748.2</ele>
        <time>2016-07-31T11:02:01Z</time>
      </trkpt>
      <trkpt lat="42.41789" lon="0.06682">
        <ele>748.7</ele>
        <time>2016-07-31T11:02:04Z</time>
      </trkpt>
      <trkpt lat="42.41787" lon="0.06678">
        <ele>749.9</ele>
        <time>2016-07-31T11:02:06Z</time>
      </trkpt>
      <trkpt lat="42.41786" lon="0.06675">
        <ele>751</ele>
        <time>2016-07-31T11:02:09Z</time>
      </trkpt>
      <trkpt lat="42.41784" lon="0.06672">
        <ele>751.8</ele>
        <time>2016-07-31T11:02:11Z</time>
      </trkpt>
      <trkpt lat="42.41781" lon="0.0667">
        <ele>752.5</ele>
        <time>2016-07-31T11:02:13Z</time>
      </trkpt>
      <trkpt lat="42.41778" lon="0.06669">
        <ele>752.9</ele>
        <time>2016-07-31T11:02:15Z</time>
      </trkpt>
      <trkpt lat="42.41775" lon="0.06667">
        <ele>753.4</ele>
        <time>2016-07-31T11:02:17Z</time>
      </trkpt>
      <trkpt lat="42.41772" lon="0.06664">
        <ele>754.2</ele>
        <time>2016-07-31T11:02:19Z</time>
      </trkpt>
      <trkpt lat="42.4177" lon="0.06662">
        <ele>754.8</ele>
        <time>2016-07-31T11:02:21Z</time>
      </trkpt>
      <trkpt lat="42.41767" lon="0.0666">
        <ele>755.3</ele>
        <time>2016-07-31T11:02:23Z</time>
      </trkpt>
      <trkpt lat="42.41765" lon="0.06657">
        <ele>756.1</ele>
        <time>2016-07-31T11:02:25Z</time>
      </trkpt>
      <trkpt lat="42.41763" lon="0.06654">
        <ele>756.9</ele>
        <time>2016-07-31T11:02:27Z</time>
      </trkpt>
      <trkpt lat="42.41761" lon="0.06651">
        <ele>757.5</ele>
        <time>2016-07-31T11:02:29Z</time>
      </trkpt>
      <trkpt lat="42.41759" lon="0.06649">
        <ele>757.9</ele>
        <time>2016-07-31T11:02:31Z</time>
      </trkpt>
      <trkpt lat="42.41756" lon="0.06648">
        <ele>758.2</ele>
        <time>2016-07-31T11:02:33Z</time>
      </trkpt>
      <trkpt lat="42.41753" lon="0.06645">
        <ele>758.8</ele>
        <time>2016-07-31T11:02:35Z</time>
      </trkpt>
      <trkpt lat="42.4175" lon="0.06645">
        <ele>758.9</ele>
        <time>2016-07-31T11:02:38Z</time>
      </trkpt>
      <trkpt lat="42.41748" lon="0.06646">
        <ele>758.5</ele>
        <time>2016-07-31T11:02:41Z</time>
      </trkpt>
      <trkpt lat="42.41745" lon="0.06648">
        <ele>758.2</ele>
        <time>2016-07-31T11:02:43Z</time>
      </trkpt>
      <trkpt lat="42.41742" lon="0.06649">
        <ele>758</ele>
        <time>2016-07-31T11:02:45Z</time>
      </trkpt>
      <trkpt lat="42.41739" lon="0.06649">
        <ele>757.9</ele>
        <time>2016-07-31T11:02:47Z</time>
      </trkpt>
      <trkpt lat="42.41736" lon="0.06651">
        <ele>757.6</ele>
        <time>2016-07-31T11:02:50Z</time>
      </trkpt>
      <trkpt lat="42.41732" lon="0.0665">
        <ele>757.7</ele>
        <time>2016-07-31T11:02:53Z</time>
      </trkpt>
      <trkpt lat="42.41729" lon="0.0665">
        <ele>757.7</ele>
        <time>2016-07-31T11:02:55Z</time>
      </trkpt>
      <trkpt lat="42.41726" lon="0.0665">
        <ele>757.8</ele>
        <time>2016-07-31T11:02:57Z</time>
      </trkpt>
      <trkpt lat="42.41723" lon="0.06649">
        <ele>757.9</ele>
        <time>2016-07-31T11:02:59Z</time>
      </trkpt>
      <trkpt lat="42.41718" lon="0.06649">
        <ele>757.8</ele>
        <time>2016-07-31T11:03:01Z</time>
      </trkpt>
      <trkpt lat="42.41714" lon="0.0665">
        <ele>757.8</ele>
        <time>2016-07-31T11:03:03Z</time>
      </trkpt>
      <trkpt lat="42.41709" lon="0.0665">
        <ele>757.7</ele>
        <time>2016-07-31T11:03:05Z</time>
      </trkpt>
      <trkpt lat="42.41704" lon="0.06651">
        <ele>756.9</ele>
        <time>2016-07-31T11:03:07Z</time>
      </trkpt>
      <trkpt lat="42.41699" lon="0.06653">
        <ele>756.1</ele>
        <time>2016-07-31T11:03:09Z</time>
      </trkpt>
      <trkpt lat="42.41696" lon="0.06654">
        <ele>755.5</ele>
        <time>2016-07-31T11:03:10Z</time>
      </trkpt>
      <trkpt lat="42.41692" lon="0.06654">
        <ele>755</ele>
        <time>2016-07-31T11:03:12Z</time>
      </trkpt>
      <trkpt lat="42.4169" lon="0.06652">
        <ele>754.9</ele>
        <time>2016-07-31T11:03:15Z</time>
      </trkpt>
      <trkpt lat="42.41687" lon="0.0665">
        <ele>754.7</ele>
        <time>2016-07-31T11:03:19Z</time>
      </trkpt>
      <trkpt lat="42.41684" lon="0.06651">
        <ele>754.3</ele>
        <time>2016-07-31T11:03:21Z</time>
      </trkpt>
      <trkpt lat="42.41681" lon="0.06651">
        <ele>753.7</ele>
        <time>2016-07-31T11:03:23Z</time>
      </trkpt>
      <trkpt lat="42.41677" lon="0.06651">
        <ele>753.2</ele>
        <time>2016-07-31T11:03:26Z</time>
      </trkpt>
      <trkpt lat="42.41675" lon="0.06652">
        <ele>752.7</ele>
        <time>2016-07-31T11:03:28Z</time>
      </trkpt>
      <trkpt lat="42.41671" lon="0.06652">
        <ele>752.2</ele>
        <time>2016-07-31T11:03:31Z</time>
      </trkpt>
      <trkpt lat="42.41669" lon="0.0665">
        <ele>752.3</ele>
        <time>2016-07-31T11:03:33Z</time>
      </trkpt>
      <trkpt lat="42.41665" lon="0.06647">
        <ele>752.3</ele>
        <time>2016-07-31T11:03:36Z</time>
      </trkpt>
      <trkpt lat="42.41661" lon="0.06645">
        <ele>752.2</ele>
        <time>2016-07-31T11:03:38Z</time>
      </trkpt>
      <trkpt lat="42.41657" lon="0.0664">
        <ele>752.5</ele>
        <time>2016-07-31T11:03:40Z</time>
      </trkpt>
      <trkpt lat="42.41655" lon="0.06637">
        <ele>752.9</ele>
        <time>2016-07-31T11:03:41Z</time>
      </trkpt>
      <trkpt lat="42.41652" lon="0.06632">
        <ele>753.5</ele>
        <time>2016-07-31T11:03:43Z</time>
      </trkpt>
      <trkpt lat="42.4165" lon="0.06629">
        <ele>754</ele>
        <time>2016-07-31T11:03:45Z</time>
      </trkpt>
      <trkpt lat="42.41648" lon="0.06625">
        <ele>754.5</ele>
        <time>2016-07-31T11:03:47Z</time>
      </trkpt>
      <trkpt lat="42.41646" lon="0.06621">
        <ele>755.3</ele>
        <time>2016-07-31T11:03:49Z</time>
      </trkpt>
      <trkpt lat="42.41646" lon="0.06618">
        <ele>756.2</ele>
        <time>2016-07-31T11:03:51Z</time>
      </trkpt>
      <trkpt lat="42.41646" lon="0.06614">
        <ele>757.3</ele>
        <time>2016-07-31T11:03:53Z</time>
      </trkpt>
      <trkpt lat="42.41644" lon="0.0661">
        <ele>757.9</ele>
        <time>2016-07-31T11:03:55Z</time>
      </trkpt>
      <trkpt lat="42.41642" lon="0.06607">
        <ele>758.6</ele>
        <time>2016-07-31T11:03:57Z</time>
      </trkpt>
      <trkpt lat="42.41641" lon="0.06603">
        <ele>759.6</ele>
        <time>2016-07-31T11:03:59Z</time>
      </trkpt>
      <trkpt lat="42.4164" lon="0.06599">
        <ele>760.4</ele>
        <time>2016-07-31T11:04:01Z</time>
      </trkpt>
      <trkpt lat="42.41639" lon="0.06595">
        <ele>761.3</ele>
        <time>2016-07-31T11:04:03Z</time>
      </trkpt>
      <trkpt lat="42.4164" lon="0.06591">
        <ele>762.6</ele>
        <time>2016-07-31T11:04:09Z</time>
      </trkpt>
      <trkpt lat="42.4164" lon="0.06587">
        <ele>763.6</ele>
        <time>2016-07-31T11:04:12Z</time>
      </trkpt>
      <trkpt lat="42.41638" lon="0.06583">
        <ele>764.2</ele>
        <time>2016-07-31T11:04:16Z</time>
      </trkpt>
      <trkpt lat="42.41635" lon="0.06581">
        <ele>764.6</ele>
        <time>2016-07-31T11:04:19Z</time>
      </trkpt>
      <trkpt lat="42.41633" lon="0.06577">
        <ele>765.3</ele>
        <time>2016-07-31T11:04:22Z</time>
      </trkpt>
      <trkpt lat="42.41631" lon="0.06573">
        <ele>765.9</ele>
        <time>2016-07-31T11:04:26Z</time>
      </trkpt>
      <trkpt lat="42.41629" lon="0.0657">
        <ele>766.3</ele>
        <time>2016-07-31T11:04:29Z</time>
      </trkpt>
      <trkpt lat="42.41627" lon="0.06567">
        <ele>766.9</ele>
        <time>2016-07-31T11:04:32Z</time>
      </trkpt>
      <trkpt lat="42.41627" lon="0.06563">
        <ele>767.9</ele>
        <time>2016-07-31T11:04:36Z</time>
      </trkpt>
      <trkpt lat="42.41628" lon="0.06558">
        <ele>769.3</ele>
        <time>2016-07-31T11:04:40Z</time>
      </trkpt>
      <trkpt lat="42.41629" lon="0.06554">
        <ele>770.4</ele>
        <time>2016-07-31T11:04:44Z</time>
      </trkpt>
      <trkpt lat="42.41628" lon="0.06551">
        <ele>771.2</ele>
        <time>2016-07-31T11:04:49Z</time>
      </trkpt>
      <trkpt lat="42.41625" lon="0.06549">
        <ele>771</ele>
        <time>2016-07-31T11:04:56Z</time>
      </trkpt>
      <trkpt lat="42.41622" lon="0.06547">
        <ele>771.2</ele>
        <time>2016-07-31T11:05:01Z</time>
      </trkpt>
      <trkpt lat="42.4162" lon="0.06543">
        <ele>771.9</ele>
        <time>2016-07-31T11:05:04Z</time>
      </trkpt>
      <trkpt lat="42.41619" lon="0.06539">
        <ele>772.4</ele>
        <time>2016-07-31T11:05:06Z</time>
      </trkpt>
      <trkpt lat="42.41619" lon="0.06534">
        <ele>773</ele>
        <time>2016-07-31T11:05:09Z</time>
      </trkpt>
      <trkpt lat="42.41618" lon="0.0653">
        <ele>773.3</ele>
        <time>2016-07-31T11:05:11Z</time>
      </trkpt>
      <trkpt lat="42.41615" lon="0.06526">
        <ele>773.5</ele>
        <time>2016-07-31T11:05:13Z</time>
      </trkpt>
      <trkpt lat="42.41613" lon="0.06523">
        <ele>773.7</ele>
        <time>2016-07-31T11:05:15Z</time>
      </trkpt>
      <trkpt lat="42.41611" lon="0.06519">
        <ele>773.9</ele>
        <time>2016-07-31T11:05:17Z</time>
      </trkpt>
      <trkpt lat="42.41608" lon="0.06515">
        <ele>774.1</ele>
        <time>2016-07-31T11:05:19Z</time>
      </trkpt>
      <trkpt lat="42.41606" lon="0.0651">
        <ele>774.5</ele>
        <time>2016-07-31T11:05:21Z</time>
      </trkpt>
      <trkpt lat="42.41605" lon="0.06507">
        <ele>774.8</ele>
        <time>2016-07-31T11:05:23Z</time>
      </trkpt>
      <trkpt lat="42.41603" lon="0.06504">
        <ele>775.1</ele>
        <time>2016-07-31T11:05:25Z</time>
      </trkpt>
      <trkpt lat="42.416" lon="0.06501">
        <ele>775.1</ele>
        <time>2016-07-31T11:05:28Z</time>
      </trkpt>
      <trkpt lat="42.41597" lon="0.06498">
        <ele>775.1</ele>
        <time>2016-07-31T11:05:30Z</time>
      </trkpt>
      <trkpt lat="42.41595" lon="0.06495">
        <ele>775.3</ele>
        <time>2016-07-31T11:05:32Z</time>
      </trkpt>
      <trkpt lat="42.41593" lon="0.06492">
        <ele>775.6</ele>
        <time>2016-07-31T11:05:34Z</time>
      </trkpt>
      <trkpt lat="42.41591" lon="0.06488">
        <ele>776</ele>
        <time>2016-07-31T11:05:36Z</time>
      </trkpt>
      <trkpt lat="42.41589" lon="0.06485">
        <ele>776.2</ele>
        <time>2016-07-31T11:05:38Z</time>
      </trkpt>
      <trkpt lat="42.41586" lon="0.06482">
        <ele>776.2</ele>
        <time>2016-07-31T11:05:40Z</time>
      </trkpt>
      <trkpt lat="42.41583" lon="0.06479">
        <ele>776.5</ele>
        <time>2016-07-31T11:05:43Z</time>
      </trkpt>
      <trkpt lat="42.4158" lon="0.06476">
        <ele>776.6</ele>
        <time>2016-07-31T11:05:46Z</time>
      </trkpt>
      <trkpt lat="42.41576" lon="0.06473">
        <ele>776.7</ele>
        <time>2016-07-31T11:05:49Z</time>
      </trkpt>
      <trkpt lat="42.41573" lon="0.06471">
        <ele>776.8</ele>
        <time>2016-07-31T11:05:51Z</time>
      </trkpt>
      <trkpt lat="42.41571" lon="0.06468">
        <ele>777.1</ele>
        <time>2016-07-31T11:05:53Z</time>
      </trkpt>
      <trkpt lat="42.41569" lon="0.06465">
        <ele>777.4</ele>
        <time>2016-07-31T11:05:55Z</time>
      </trkpt>
      <trkpt lat="42.41566" lon="0.06462">
        <ele>777.6</ele>
        <time>2016-07-31T11:05:58Z</time>
      </trkpt>
      <trkpt lat="42.41564" lon="0.06459">
        <ele>778.1</ele>
        <time>2016-07-31T11:06:01Z</time>
      </trkpt>
      <trkpt lat="42.41562" lon="0.06455">
        <ele>778</ele>
        <time>2016-07-31T11:06:04Z</time>
      </trkpt>
      <trkpt lat="42.4156" lon="0.06452">
        <ele>777.9</ele>
        <time>2016-07-31T11:06:06Z</time>
      </trkpt>
      <trkpt lat="42.41558" lon="0.06449">
        <ele>777.9</ele>
        <time>2016-07-31T11:06:08Z</time>
      </trkpt>
      <trkpt lat="42.41557" lon="0.06443">
        <ele>778.1</ele>
        <time>2016-07-31T11:06:11Z</time>
      </trkpt>
      <trkpt lat="42.41556" lon="0.06439">
        <ele>778.2</ele>
        <time>2016-07-31T11:06:14Z</time>
      </trkpt>
      <trkpt lat="42.41554" lon="0.06435">
        <ele>778.3</ele>
        <time>2016-07-31T11:06:16Z</time>
      </trkpt>
      <trkpt lat="42.41552" lon="0.06431">
        <ele>778.5</ele>
        <time>2016-07-31T11:06:18Z</time>
      </trkpt>
      <trkpt lat="42.4155" lon="0.06427">
        <ele>778.7</ele>
        <time>2016-07-31T11:06:20Z</time>
      </trkpt>
      <trkpt lat="42.41548" lon="0.06423">
        <ele>778.9</ele>
        <time>2016-07-31T11:06:22Z</time>
      </trkpt>
      <trkpt lat="42.41547" lon="0.06419">
        <ele>779.2</ele>
        <time>2016-07-31T11:06:25Z</time>
      </trkpt>
      <trkpt lat="42.41547" lon="0.06415">
        <ele>779.5</ele>
        <time>2016-07-31T11:06:27Z</time>
      </trkpt>
      <trkpt lat="42.41546" lon="0.0641">
        <ele>779.9</ele>
        <time>2016-07-31T11:06:29Z</time>
      </trkpt>
      <trkpt lat="42.41545" lon="0.06406">
        <ele>780.2</ele>
        <time>2016-07-31T11:06:31Z</time>
      </trkpt>
      <trkpt lat="42.41543" lon="0.06402">
        <ele>780.6</ele>
        <time>2016-07-31T11:06:33Z</time>
      </trkpt>
      <trkpt lat="42.41542" lon="0.06398">
        <ele>781.1</ele>
        <time>2016-07-31T11:06:35Z</time>
      </trkpt>
      <trkpt lat="42.41541" lon="0.06394">
        <ele>781.5</ele>
        <time>2016-07-31T11:06:37Z</time>
      </trkpt>
      <trkpt lat="42.41538" lon="0.06391">
        <ele>781.9</ele>
        <time>2016-07-31T11:06:39Z</time>
      </trkpt>
      <trkpt lat="42.41536" lon="0.06388">
        <ele>782.5</ele>
        <time>2016-07-31T11:06:41Z</time>
      </trkpt>
      <trkpt lat="42.41535" lon="0.06383">
        <ele>783</ele>
        <time>2016-07-31T11:06:43Z</time>
      </trkpt>
      <trkpt lat="42.41533" lon="0.0638">
        <ele>783.6</ele>
        <time>2016-07-31T11:06:45Z</time>
      </trkpt>
      <trkpt lat="42.41531" lon="0.06377">
        <ele>784.2</ele>
        <time>2016-07-31T11:06:47Z</time>
      </trkpt>
      <trkpt lat="42.41533" lon="0.06375">
        <ele>784</ele>
        <time>2016-07-31T11:06:53Z</time>
      </trkpt>
      <trkpt lat="42.41536" lon="0.06377">
        <ele>783.5</ele>
        <time>2016-07-31T11:06:55Z</time>
      </trkpt>
      <trkpt lat="42.41538" lon="0.06378">
        <ele>783.1</ele>
        <time>2016-07-31T11:06:57Z</time>
      </trkpt>
      <trkpt lat="42.41541" lon="0.06381">
        <ele>782.6</ele>
        <time>2016-07-31T11:08:33Z</time>
      </trkpt>
      <trkpt lat="42.41543" lon="0.06384">
        <ele>782.1</ele>
        <time>2016-07-31T11:08:38Z</time>
      </trkpt>
      <trkpt lat="42.41546" lon="0.06385">
        <ele>781.6</ele>
        <time>2016-07-31T11:08:40Z</time>
      </trkpt>
      <trkpt lat="42.41549" lon="0.06388">
        <ele>781.1</ele>
        <time>2016-07-31T11:08:42Z</time>
      </trkpt>
      <trkpt lat="42.41552" lon="0.0639">
        <ele>780.6</ele>
        <time>2016-07-31T11:08:44Z</time>
      </trkpt>
      <trkpt lat="42.41556" lon="0.06392">
        <ele>780.2</ele>
        <time>2016-07-31T11:08:46Z</time>
      </trkpt>
      <trkpt lat="42.41559" lon="0.06395">
        <ele>779.8</ele>
        <time>2016-07-31T11:08:48Z</time>
      </trkpt>
      <trkpt lat="42.41563" lon="0.06397">
        <ele>779.5</ele>
        <time>2016-07-31T11:08:50Z</time>
      </trkpt>
      <trkpt lat="42.41566" lon="0.06399">
        <ele>779.2</ele>
        <time>2016-07-31T11:08:52Z</time>
      </trkpt>
      <trkpt lat="42.4157" lon="0.06399">
        <ele>778.9</ele>
        <time>2016-07-31T11:08:54Z</time>
      </trkpt>
      <trkpt lat="42.41573" lon="0.064">
        <ele>778.7</ele>
        <time>2016-07-31T11:08:56Z</time>
      </trkpt>
      <trkpt lat="42.41576" lon="0.06402">
        <ele>778.5</ele>
        <time>2016-07-31T11:08:58Z</time>
      </trkpt>
      <trkpt lat="42.41579" lon="0.06404">
        <ele>778.3</ele>
        <time>2016-07-31T11:09:00Z</time>
      </trkpt>
      <trkpt lat="42.41582" lon="0.06405">
        <ele>778.2</ele>
        <time>2016-07-31T11:09:02Z</time>
      </trkpt>
      <trkpt lat="42.41585" lon="0.06407">
        <ele>778.1</ele>
        <time>2016-07-31T11:09:04Z</time>
      </trkpt>
      <trkpt lat="42.41588" lon="0.06408">
        <ele>778</ele>
        <time>2016-07-31T11:09:06Z</time>
      </trkpt>
      <trkpt lat="42.41591" lon="0.06408">
        <ele>777.8</ele>
        <time>2016-07-31T11:09:08Z</time>
      </trkpt>
      <trkpt lat="42.41595" lon="0.06409">
        <ele>777.7</ele>
        <time>2016-07-31T11:09:10Z</time>
      </trkpt>
      <trkpt lat="42.41597" lon="0.0641">
        <ele>777.6</ele>
        <time>2016-07-31T11:09:12Z</time>
      </trkpt>
      <trkpt lat="42.416" lon="0.06411">
        <ele>777.6</ele>
        <time>2016-07-31T11:09:14Z</time>
      </trkpt>
      <trkpt lat="42.41603" lon="0.06413">
        <ele>777.7</ele>
        <time>2016-07-31T11:09:16Z</time>
      </trkpt>
      <trkpt lat="42.41606" lon="0.06415">
        <ele>777.7</ele>
        <time>2016-07-31T11:09:18Z</time>
      </trkpt>
      <trkpt lat="42.4161" lon="0.06416">
        <ele>777.8</ele>
        <time>2016-07-31T11:09:20Z</time>
      </trkpt>
      <trkpt lat="42.41613" lon="0.06418">
        <ele>777.9</ele>
        <time>2016-07-31T11:09:22Z</time>
      </trkpt>
      <trkpt lat="42.41617" lon="0.0642">
        <ele>778.1</ele>
        <time>2016-07-31T11:09:24Z</time>
      </trkpt>
      <trkpt lat="42.4162" lon="0.06421">
        <ele>778.2</ele>
        <time>2016-07-31T11:09:26Z</time>
      </trkpt>
      <trkpt lat="42.41623" lon="0.0642">
        <ele>778</ele>
        <time>2016-07-31T11:09:28Z</time>
      </trkpt>
      <trkpt lat="42.41626" lon="0.06419">
        <ele>778</ele>
        <time>2016-07-31T11:09:30Z</time>
      </trkpt>
      <trkpt lat="42.4163" lon="0.06419">
        <ele>778.4</ele>
        <time>2016-07-31T11:09:32Z</time>
      </trkpt>
      <trkpt lat="42.41634" lon="0.06419">
        <ele>778.9</ele>
        <time>2016-07-31T11:09:34Z</time>
      </trkpt>
      <trkpt lat="42.41637" lon="0.06421">
        <ele>779.6</ele>
        <time>2016-07-31T11:09:36Z</time>
      </trkpt>
      <trkpt lat="42.41641" lon="0.06423">
        <ele>780.5</ele>
        <time>2016-07-31T11:09:38Z</time>
      </trkpt>
      <trkpt lat="42.41644" lon="0.06426">
        <ele>781.3</ele>
        <time>2016-07-31T11:09:40Z</time>
      </trkpt>
      <trkpt lat="42.41647" lon="0.06428">
        <ele>782</ele>
        <time>2016-07-31T11:09:42Z</time>
      </trkpt>
      <trkpt lat="42.4165" lon="0.06426">
        <ele>782.1</ele>
        <time>2016-07-31T11:09:44Z</time>
      </trkpt>
      <trkpt lat="42.41652" lon="0.06422">
        <ele>781.7</ele>
        <time>2016-07-31T11:09:46Z</time>
      </trkpt>
      <trkpt lat="42.41655" lon="0.06419">
        <ele>781.6</ele>
        <time>2016-07-31T11:09:48Z</time>
      </trkpt>
      <trkpt lat="42.41659" lon="0.06421">
        <ele>782.2</ele>
        <time>2016-07-31T11:09:50Z</time>
      </trkpt>
      <trkpt lat="42.41662" lon="0.06424">
        <ele>783.1</ele>
        <time>2016-07-31T11:09:52Z</time>
      </trkpt>
      <trkpt lat="42.41665" lon="0.06426">
        <ele>783.9</ele>
        <time>2016-07-31T11:09:54Z</time>
      </trkpt>
      <trkpt lat="42.41669" lon="0.06426">
        <ele>784.3</ele>
        <time>2016-07-31T11:09:56Z</time>
      </trkpt>
      <trkpt lat="42.41673" lon="0.06426">
        <ele>784.7</ele>
        <time>2016-07-31T11:09:58Z</time>
      </trkpt>
      <trkpt lat="42.41676" lon="0.06425">
        <ele>785.1</ele>
        <time>2016-07-31T11:10:00Z</time>
      </trkpt>
      <trkpt lat="42.41679" lon="0.06424">
        <ele>785.3</ele>
        <time>2016-07-31T11:10:02Z</time>
      </trkpt>
      <trkpt lat="42.41683" lon="0.06425">
        <ele>785.8</ele>
        <time>2016-07-31T11:10:04Z</time>
      </trkpt>
      <trkpt lat="42.41686" lon="0.06427">
        <ele>786.6</ele>
        <time>2016-07-31T11:10:06Z</time>
      </trkpt>
      <trkpt lat="42.41689" lon="0.06429">
        <ele>787.3</ele>
        <time>2016-07-31T11:10:08Z</time>
      </trkpt>
      <trkpt lat="42.41692" lon="0.0643">
        <ele>787.9</ele>
        <time>2016-07-31T11:10:10Z</time>
      </trkpt>
      <trkpt lat="42.41696" lon="0.0643">
        <ele>788.4</ele>
        <time>2016-07-31T11:10:12Z</time>
      </trkpt>
      <trkpt lat="42.41699" lon="0.06431">
        <ele>788.9</ele>
        <time>2016-07-31T11:10:14Z</time>
      </trkpt>
      <trkpt lat="42.41703" lon="0.06432">
        <ele>789.6</ele>
        <time>2016-07-31T11:10:16Z</time>
      </trkpt>
      <trkpt lat="42.41706" lon="0.06434">
        <ele>790.3</ele>
        <time>2016-07-31T11:10:18Z</time>
      </trkpt>
      <trkpt lat="42.4171" lon="0.06434">
        <ele>790.8</ele>
        <time>2016-07-31T11:10:20Z</time>
      </trkpt>
      <trkpt lat="42.41714" lon="0.06434">
        <ele>791.2</ele>
        <time>2016-07-31T11:10:22Z</time>
      </trkpt>
      <trkpt lat="42.41718" lon="0.06434">
        <ele>791.7</ele>
        <time>2016-07-31T11:10:24Z</time>
      </trkpt>
      <trkpt lat="42.41721" lon="0.06436">
        <ele>792.4</ele>
        <time>2016-07-31T11:10:26Z</time>
      </trkpt>
      <trkpt lat="42.41725" lon="0.06437">
        <ele>792.9</ele>
        <time>2016-07-31T11:10:28Z</time>
      </trkpt>
      <trkpt lat="42.41727" lon="0.06436">
        <ele>793</ele>
        <time>2016-07-31T11:10:33Z</time>
      </trkpt>
      <trkpt lat="42.4173" lon="0.06433">
        <ele>792.8</ele>
        <time>2016-07-31T11:10:38Z</time>
      </trkpt>
      <trkpt lat="42.41732" lon="0.06431">
        <ele>792.8</ele>
        <time>2016-07-31T11:10:41Z</time>
      </trkpt>
      <trkpt lat="42.41735" lon="0.06429">
        <ele>792.7</ele>
        <time>2016-07-31T11:10:44Z</time>
      </trkpt>
      <trkpt lat="42.41738" lon="0.06426">
        <ele>792.5</ele>
        <time>2016-07-31T11:10:47Z</time>
      </trkpt>
      <trkpt lat="42.41741" lon="0.06426">
        <ele>792.8</ele>
        <time>2016-07-31T11:10:55Z</time>
      </trkpt>
      <trkpt lat="42.41744" lon="0.06423">
        <ele>792.7</ele>
        <time>2016-07-31T11:10:57Z</time>
      </trkpt>
      <trkpt lat="42.41748" lon="0.06421">
        <ele>792.8</ele>
        <time>2016-07-31T11:10:59Z</time>
      </trkpt>
      <trkpt lat="42.41753" lon="0.06419">
        <ele>793.1</ele>
        <time>2016-07-31T11:11:01Z</time>
      </trkpt>
      <trkpt lat="42.41756" lon="0.06418">
        <ele>793.2</ele>
        <time>2016-07-31T11:11:02Z</time>
      </trkpt>
      <trkpt lat="42.41759" lon="0.06416">
        <ele>793.2</ele>
        <time>2016-07-31T11:11:03Z</time>
      </trkpt>
      <trkpt lat="42.41761" lon="0.06414">
        <ele>793.1</ele>
        <time>2016-07-31T11:11:04Z</time>
      </trkpt>
      <trkpt lat="42.41764" lon="0.06411">
        <ele>792.9</ele>
        <time>2016-07-31T11:11:05Z</time>
      </trkpt>
      <trkpt lat="42.41768" lon="0.06409">
        <ele>792.9</ele>
        <time>2016-07-31T11:11:06Z</time>
      </trkpt>
      <trkpt lat="42.41772" lon="0.06408">
        <ele>793.2</ele>
        <time>2016-07-31T11:11:07Z</time>
      </trkpt>
      <trkpt lat="42.41777" lon="0.06407">
        <ele>793.6</ele>
        <time>2016-07-31T11:11:08Z</time>
      </trkpt>
      <trkpt lat="42.41781" lon="0.06406">
        <ele>794.1</ele>
        <time>2016-07-31T11:11:09Z</time>
      </trkpt>
      <trkpt lat="42.41786" lon="0.06406">
        <ele>794.6</ele>
        <time>2016-07-31T11:11:10Z</time>
      </trkpt>
      <trkpt lat="42.4179" lon="0.06406">
        <ele>795</ele>
        <time>2016-07-31T11:11:11Z</time>
      </trkpt>
      <trkpt lat="42.41794" lon="0.06407">
        <ele>795.5</ele>
        <time>2016-07-31T11:11:12Z</time>
      </trkpt>
      <trkpt lat="42.41797" lon="0.06408">
        <ele>796</ele>
        <time>2016-07-31T11:11:13Z</time>
      </trkpt>
      <trkpt lat="42.418" lon="0.0641">
        <ele>796.6</ele>
        <time>2016-07-31T11:11:14Z</time>
      </trkpt>
      <trkpt lat="42.41802" lon="0.06413">
        <ele>797.2</ele>
        <time>2016-07-31T11:11:15Z</time>
      </trkpt>
      <trkpt lat="42.41804" lon="0.06417">
        <ele>797.9</ele>
        <time>2016-07-31T11:11:16Z</time>
      </trkpt>
      <trkpt lat="42.41806" lon="0.0642">
        <ele>798.5</ele>
        <time>2016-07-31T11:11:17Z</time>
      </trkpt>
      <trkpt lat="42.41811" lon="0.06424">
        <ele>799.4</ele>
        <time>2016-07-31T11:11:19Z</time>
      </trkpt>
      <trkpt lat="42.41815" lon="0.06426">
        <ele>799.9</ele>
        <time>2016-07-31T11:11:20Z</time>
      </trkpt>
      <trkpt lat="42.41819" lon="0.06427">
        <ele>800.2</ele>
        <time>2016-07-31T11:11:21Z</time>
      </trkpt>
      <trkpt lat="42.41821" lon="0.06428">
        <ele>800.5</ele>
        <time>2016-07-31T11:11:23Z</time>
      </trkpt>
      <trkpt lat="42.41823" lon="0.06431">
        <ele>801</ele>
        <time>2016-07-31T11:11:25Z</time>
      </trkpt>
      <trkpt lat="42.41825" lon="0.06436">
        <ele>801.7</ele>
        <time>2016-07-31T11:11:27Z</time>
      </trkpt>
      <trkpt lat="42.41827" lon="0.06438">
        <ele>802</ele>
        <time>2016-07-31T11:11:28Z</time>
      </trkpt>
      <trkpt lat="42.41831" lon="0.06439">
        <ele>802.4</ele>
        <time>2016-07-31T11:11:29Z</time>
      </trkpt>
      <trkpt lat="42.41835" lon="0.0644">
        <ele>802.6</ele>
        <time>2016-07-31T11:11:30Z</time>
      </trkpt>
      <trkpt lat="42.4184" lon="0.06441">
        <ele>802.9</ele>
        <time>2016-07-31T11:11:31Z</time>
      </trkpt>
      <trkpt lat="42.41845" lon="0.06441">
        <ele>803.1</ele>
        <time>2016-07-31T11:11:32Z</time>
      </trkpt>
      <trkpt lat="42.4185" lon="0.06442">
        <ele>803.3</ele>
        <time>2016-07-31T11:11:33Z</time>
      </trkpt>
      <trkpt lat="42.41856" lon="0.06444">
        <ele>803.7</ele>
        <time>2016-07-31T11:11:34Z</time>
      </trkpt>
      <trkpt lat="42.41862" lon="0.06446">
        <ele>804</ele>
        <time>2016-07-31T11:11:35Z</time>
      </trkpt>
      <trkpt lat="42.41868" lon="0.0645">
        <ele>804.4</ele>
        <time>2016-07-31T11:11:36Z</time>
      </trkpt>
      <trkpt lat="42.41873" lon="0.06455">
        <ele>804.8</ele>
        <time>2016-07-31T11:11:37Z</time>
      </trkpt>
      <trkpt lat="42.41878" lon="0.06459">
        <ele>805</ele>
        <time>2016-07-31T11:11:38Z</time>
      </trkpt>
      <trkpt lat="42.41881" lon="0.06464">
        <ele>804.4</ele>
        <time>2016-07-31T11:11:39Z</time>
      </trkpt>
      <trkpt lat="42.41885" lon="0.06468">
        <ele>803.7</ele>
        <time>2016-07-31T11:11:40Z</time>
      </trkpt>
      <trkpt lat="42.41889" lon="0.06472">
        <ele>803.1</ele>
        <time>2016-07-31T11:11:41Z</time>
      </trkpt>
      <trkpt lat="42.41893" lon="0.06476">
        <ele>802.6</ele>
        <time>2016-07-31T11:11:42Z</time>
      </trkpt>
      <trkpt lat="42.41896" lon="0.06479">
        <ele>802.2</ele>
        <time>2016-07-31T11:11:43Z</time>
      </trkpt>
      <trkpt lat="42.419" lon="0.0648">
        <ele>802</ele>
        <time>2016-07-31T11:11:45Z</time>
      </trkpt>
      <trkpt lat="42.41904" lon="0.0648">
        <ele>802.3</ele>
        <time>2016-07-31T11:11:47Z</time>
      </trkpt>
      <trkpt lat="42.41907" lon="0.0648">
        <ele>802.5</ele>
        <time>2016-07-31T11:11:49Z</time>
      </trkpt>
      <trkpt lat="42.4191" lon="0.06481">
        <ele>802.5</ele>
        <time>2016-07-31T11:11:51Z</time>
      </trkpt>
      <trkpt lat="42.41914" lon="0.06483">
        <ele>802.3</ele>
        <time>2016-07-31T11:11:54Z</time>
      </trkpt>
      <trkpt lat="42.41918" lon="0.06483">
        <ele>802.6</ele>
        <time>2016-07-31T11:11:57Z</time>
      </trkpt>
      <trkpt lat="42.41922" lon="0.06483">
        <ele>802.8</ele>
        <time>2016-07-31T11:12:00Z</time>
      </trkpt>
      <trkpt lat="42.41926" lon="0.06484">
        <ele>802.8</ele>
        <time>2016-07-31T11:12:03Z</time>
      </trkpt>
      <trkpt lat="42.41928" lon="0.06484">
        <ele>803</ele>
        <time>2016-07-31T11:12:06Z</time>
      </trkpt>
      <trkpt lat="42.41932" lon="0.06483">
        <ele>803.5</ele>
        <time>2016-07-31T11:12:09Z</time>
      </trkpt>
      <trkpt lat="42.41935" lon="0.06484">
        <ele>803.5</ele>
        <time>2016-07-31T11:12:11Z</time>
      </trkpt>
      <trkpt lat="42.41939" lon="0.06485">
        <ele>803.3</ele>
        <time>2016-07-31T11:12:13Z</time>
      </trkpt>
      <trkpt lat="42.41943" lon="0.06486">
        <ele>803.4</ele>
        <time>2016-07-31T11:12:15Z</time>
      </trkpt>
      <trkpt lat="42.41949" lon="0.06486">
        <ele>803.9</ele>
        <time>2016-07-31T11:12:17Z</time>
      </trkpt>
      <trkpt lat="42.41953" lon="0.06484">
        <ele>804.7</ele>
        <time>2016-07-31T11:12:19Z</time>
      </trkpt>
      <trkpt lat="42.41957" lon="0.06484">
        <ele>804.9</ele>
        <time>2016-07-31T11:12:21Z</time>
      </trkpt>
      <trkpt lat="42.41962" lon="0.06485">
        <ele>805.2</ele>
        <time>2016-07-31T11:12:23Z</time>
      </trkpt>
      <trkpt lat="42.41965" lon="0.06485">
        <ele>805.4</ele>
        <time>2016-07-31T11:12:24Z</time>
      </trkpt>
      <trkpt lat="42.4197" lon="0.06483">
        <ele>806.3</ele>
        <time>2016-07-31T11:12:26Z</time>
      </trkpt>
      <trkpt lat="42.41973" lon="0.06479">
        <ele>807.8</ele>
        <time>2016-07-31T11:12:28Z</time>
      </trkpt>
      <trkpt lat="42.41975" lon="0.06475">
        <ele>809.2</ele>
        <time>2016-07-31T11:12:30Z</time>
      </trkpt>
      <trkpt lat="42.41981" lon="0.06474">
        <ele>809.9</ele>
        <time>2016-07-31T11:12:32Z</time>
      </trkpt>
      <trkpt lat="42.41986" lon="0.06474">
        <ele>810</ele>
        <time>2016-07-31T11:12:34Z</time>
      </trkpt>
      <trkpt lat="42.41989" lon="0.06475">
        <ele>810.1</ele>
        <time>2016-07-31T11:12:35Z</time>
      </trkpt>
      <trkpt lat="42.41992" lon="0.06476">
        <ele>810.1</ele>
        <time>2016-07-31T11:12:36Z</time>
      </trkpt>
      <trkpt lat="42.41997" lon="0.06476">
        <ele>810.4</ele>
        <time>2016-07-31T11:12:38Z</time>
      </trkpt>
      <trkpt lat="42.42" lon="0.06477">
        <ele>810.5</ele>
        <time>2016-07-31T11:12:39Z</time>
      </trkpt>
      <trkpt lat="42.42003" lon="0.06477">
        <ele>810.7</ele>
        <time>2016-07-31T11:12:40Z</time>
      </trkpt>
      <trkpt lat="42.42009" lon="0.06478">
        <ele>810.7</ele>
        <time>2016-07-31T11:12:42Z</time>
      </trkpt>
      <trkpt lat="42.42012" lon="0.0648">
        <ele>810.6</ele>
        <time>2016-07-31T11:12:43Z</time>
      </trkpt>
      <trkpt lat="42.42016" lon="0.06482">
        <ele>810.4</ele>
        <time>2016-07-31T11:12:44Z</time>
      </trkpt>
      <trkpt lat="42.42019" lon="0.06483">
        <ele>810.2</ele>
        <time>2016-07-31T11:12:45Z</time>
      </trkpt>
      <trkpt lat="42.42022" lon="0.06485">
        <ele>810</ele>
        <time>2016-07-31T11:12:46Z</time>
      </trkpt>
      <trkpt lat="42.42025" lon="0.06487">
        <ele>809.7</ele>
        <time>2016-07-31T11:12:47Z</time>
      </trkpt>
      <trkpt lat="42.42027" lon="0.06489">
        <ele>809.3</ele>
        <time>2016-07-31T11:12:48Z</time>
      </trkpt>
      <trkpt lat="42.4203" lon="0.06492">
        <ele>809</ele>
        <time>2016-07-31T11:12:49Z</time>
      </trkpt>
      <trkpt lat="42.42033" lon="0.06494">
        <ele>808.7</ele>
        <time>2016-07-31T11:12:50Z</time>
      </trkpt>
      <trkpt lat="42.42035" lon="0.06495">
        <ele>808.5</ele>
        <time>2016-07-31T11:12:51Z</time>
      </trkpt>
      <trkpt lat="42.42038" lon="0.06498">
        <ele>808.3</ele>
        <time>2016-07-31T11:12:52Z</time>
      </trkpt>
      <trkpt lat="42.42041" lon="0.065">
        <ele>808</ele>
        <time>2016-07-31T11:12:53Z</time>
      </trkpt>
      <trkpt lat="42.42044" lon="0.06502">
        <ele>807.8</ele>
        <time>2016-07-31T11:12:54Z</time>
      </trkpt>
      <trkpt lat="42.42047" lon="0.06504">
        <ele>807.7</ele>
        <time>2016-07-31T11:12:55Z</time>
      </trkpt>
      <trkpt lat="42.42052" lon="0.06506">
        <ele>807.8</ele>
        <time>2016-07-31T11:12:57Z</time>
      </trkpt>
      <trkpt lat="42.42056" lon="0.06508">
        <ele>808</ele>
        <time>2016-07-31T11:12:58Z</time>
      </trkpt>
      <trkpt lat="42.42059" lon="0.06509">
        <ele>808.1</ele>
        <time>2016-07-31T11:12:59Z</time>
      </trkpt>
      <trkpt lat="42.42062" lon="0.0651">
        <ele>808.2</ele>
        <time>2016-07-31T11:13:00Z</time>
      </trkpt>
      <trkpt lat="42.42065" lon="0.06512">
        <ele>808</ele>
        <time>2016-07-31T11:13:01Z</time>
      </trkpt>
      <trkpt lat="42.42067" lon="0.06515">
        <ele>807.7</ele>
        <time>2016-07-31T11:13:02Z</time>
      </trkpt>
      <trkpt lat="42.4207" lon="0.06518">
        <ele>807.3</ele>
        <time>2016-07-31T11:13:03Z</time>
      </trkpt>
      <trkpt lat="42.42072" lon="0.06521">
        <ele>806.8</ele>
        <time>2016-07-31T11:13:04Z</time>
      </trkpt>
      <trkpt lat="42.42074" lon="0.06524">
        <ele>806.5</ele>
        <time>2016-07-31T11:13:05Z</time>
      </trkpt>
      <trkpt lat="42.42076" lon="0.06527">
        <ele>806.1</ele>
        <time>2016-07-31T11:13:07Z</time>
      </trkpt>
      <trkpt lat="42.42081" lon="0.06527">
        <ele>806.5</ele>
        <time>2016-07-31T11:13:09Z</time>
      </trkpt>
      <trkpt lat="42.42084" lon="0.06528">
        <ele>806.9</ele>
        <time>2016-07-31T11:13:10Z</time>
      </trkpt>
      <trkpt lat="42.42087" lon="0.06529">
        <ele>807</ele>
        <time>2016-07-31T11:13:11Z</time>
      </trkpt>
      <trkpt lat="42.4209" lon="0.06532">
        <ele>806.8</ele>
        <time>2016-07-31T11:13:12Z</time>
      </trkpt>
      <trkpt lat="42.42094" lon="0.06535">
        <ele>806.4</ele>
        <time>2016-07-31T11:13:13Z</time>
      </trkpt>
      <trkpt lat="42.42098" lon="0.0654">
        <ele>805.9</ele>
        <time>2016-07-31T11:13:14Z</time>
      </trkpt>
      <trkpt lat="42.42101" lon="0.06543">
        <ele>805.4</ele>
        <time>2016-07-31T11:13:15Z</time>
      </trkpt>
      <trkpt lat="42.42103" lon="0.06546">
        <ele>804.9</ele>
        <time>2016-07-31T11:13:16Z</time>
      </trkpt>
      <trkpt lat="42.42106" lon="0.06547">
        <ele>804.8</ele>
        <time>2016-07-31T11:13:17Z</time>
      </trkpt>
      <trkpt lat="42.4211" lon="0.06549">
        <ele>804.7</ele>
        <time>2016-07-31T11:13:18Z</time>
      </trkpt>
      <trkpt lat="42.42113" lon="0.06552">
        <ele>804.4</ele>
        <time>2016-07-31T11:13:19Z</time>
      </trkpt>
      <trkpt lat="42.42117" lon="0.06555">
        <ele>803.8</ele>
        <time>2016-07-31T11:13:20Z</time>
      </trkpt>
      <trkpt lat="42.42121" lon="0.06559">
        <ele>803.2</ele>
        <time>2016-07-31T11:13:21Z</time>
      </trkpt>
      <trkpt lat="42.42124" lon="0.06563">
        <ele>802.6</ele>
        <time>2016-07-31T11:13:22Z</time>
      </trkpt>
      <trkpt lat="42.42127" lon="0.06565">
        <ele>802.3</ele>
        <time>2016-07-31T11:13:23Z</time>
      </trkpt>
      <trkpt lat="42.42131" lon="0.06567">
        <ele>802.3</ele>
        <time>2016-07-31T11:13:24Z</time>
      </trkpt>
      <trkpt lat="42.42133" lon="0.06569">
        <ele>802</ele>
        <time>2016-07-31T11:13:25Z</time>
      </trkpt>
      <trkpt lat="42.42137" lon="0.06575">
        <ele>801</ele>
        <time>2016-07-31T11:13:27Z</time>
      </trkpt>
      <trkpt lat="42.42141" lon="0.06577">
        <ele>800.8</ele>
        <time>2016-07-31T11:13:28Z</time>
      </trkpt>
      <trkpt lat="42.42145" lon="0.06579">
        <ele>800.9</ele>
        <time>2016-07-31T11:13:29Z</time>
      </trkpt>
      <trkpt lat="42.42149" lon="0.0658">
        <ele>801.2</ele>
        <time>2016-07-31T11:13:30Z</time>
      </trkpt>
      <trkpt lat="42.42154" lon="0.06581">
        <ele>801.7</ele>
        <time>2016-07-31T11:13:31Z</time>
      </trkpt>
      <trkpt lat="42.42159" lon="0.06582">
        <ele>802.1</ele>
        <time>2016-07-31T11:13:32Z</time>
      </trkpt>
      <trkpt lat="42.42164" lon="0.06583">
        <ele>802.3</ele>
        <time>2016-07-31T11:13:33Z</time>
      </trkpt>
      <trkpt lat="42.42168" lon="0.06586">
        <ele>802.2</ele>
        <time>2016-07-31T11:13:34Z</time>
      </trkpt>
      <trkpt lat="42.42172" lon="0.06588">
        <ele>802.2</ele>
        <time>2016-07-31T11:13:35Z</time>
      </trkpt>
      <trkpt lat="42.42176" lon="0.06589">
        <ele>802.3</ele>
        <time>2016-07-31T11:13:36Z</time>
      </trkpt>
      <trkpt lat="42.4218" lon="0.0659">
        <ele>802.6</ele>
        <time>2016-07-31T11:13:37Z</time>
      </trkpt>
      <trkpt lat="42.42183" lon="0.06591">
        <ele>802.8</ele>
        <time>2016-07-31T11:13:38Z</time>
      </trkpt>
      <trkpt lat="42.42186" lon="0.06591">
        <ele>803.1</ele>
        <time>2016-07-31T11:13:39Z</time>
      </trkpt>
      <trkpt lat="42.42191" lon="0.06592">
        <ele>803.4</ele>
        <time>2016-07-31T11:13:40Z</time>
      </trkpt>
      <trkpt lat="42.42195" lon="0.06592">
        <ele>804.1</ele>
        <time>2016-07-31T11:13:41Z</time>
      </trkpt>
      <trkpt lat="42.422" lon="0.06592">
        <ele>805</ele>
        <time>2016-07-31T11:13:42Z</time>
      </trkpt>
      <trkpt lat="42.42204" lon="0.06591">
        <ele>805.8</ele>
        <time>2016-07-31T11:13:43Z</time>
      </trkpt>
      <trkpt lat="42.42209" lon="0.06591">
        <ele>806.6</ele>
        <time>2016-07-31T11:13:44Z</time>
      </trkpt>
      <trkpt lat="42.42214" lon="0.06591">
        <ele>806.7</ele>
        <time>2016-07-31T11:13:45Z</time>
      </trkpt>
      <trkpt lat="42.42219" lon="0.06592">
        <ele>806.8</ele>
        <time>2016-07-31T11:13:46Z</time>
      </trkpt>
      <trkpt lat="42.42224" lon="0.06592">
        <ele>806.7</ele>
        <time>2016-07-31T11:13:47Z</time>
      </trkpt>
      <trkpt lat="42.42229" lon="0.06593">
        <ele>806.8</ele>
        <time>2016-07-31T11:13:48Z</time>
      </trkpt>
      <trkpt lat="42.42233" lon="0.06593">
        <ele>807</ele>
        <time>2016-07-31T11:13:49Z</time>
      </trkpt>
      <trkpt lat="42.42236" lon="0.06593">
        <ele>807.2</ele>
        <time>2016-07-31T11:13:50Z</time>
      </trkpt>
      <trkpt lat="42.42241" lon="0.06594">
        <ele>807.2</ele>
        <time>2016-07-31T11:13:54Z</time>
      </trkpt>
      <trkpt lat="42.42244" lon="0.06594">
        <ele>807.2</ele>
        <time>2016-07-31T11:13:55Z</time>
      </trkpt>
      <trkpt lat="42.42247" lon="0.06595">
        <ele>807.2</ele>
        <time>2016-07-31T11:13:56Z</time>
      </trkpt>
      <trkpt lat="42.42251" lon="0.06595">
        <ele>807.2</ele>
        <time>2016-07-31T11:13:57Z</time>
      </trkpt>
      <trkpt lat="42.42254" lon="0.06595">
        <ele>807.4</ele>
        <time>2016-07-31T11:13:58Z</time>
      </trkpt>
      <trkpt lat="42.42258" lon="0.06596">
        <ele>807.5</ele>
        <time>2016-07-31T11:13:59Z</time>
      </trkpt>
      <trkpt lat="42.42262" lon="0.06596">
        <ele>807.5</ele>
        <time>2016-07-31T11:14:00Z</time>
      </trkpt>
      <trkpt lat="42.42267" lon="0.06597">
        <ele>807.6</ele>
        <time>2016-07-31T11:14:01Z</time>
      </trkpt>
      <trkpt lat="42.42273" lon="0.06597">
        <ele>807.7</ele>
        <time>2016-07-31T11:14:02Z</time>
      </trkpt>
      <trkpt lat="42.42278" lon="0.06599">
        <ele>807.5</ele>
        <time>2016-07-31T11:14:03Z</time>
      </trkpt>
      <trkpt lat="42.42284" lon="0.066">
        <ele>807.4</ele>
        <time>2016-07-31T11:14:04Z</time>
      </trkpt>
      <trkpt lat="42.4229" lon="0.06602">
        <ele>807</ele>
        <time>2016-07-31T11:14:05Z</time>
      </trkpt>
      <trkpt lat="42.42295" lon="0.06605">
        <ele>806.6</ele>
        <time>2016-07-31T11:14:06Z</time>
      </trkpt>
      <trkpt lat="42.423" lon="0.06608">
        <ele>806.3</ele>
        <time>2016-07-31T11:14:07Z</time>
      </trkpt>
      <trkpt lat="42.42304" lon="0.06611">
        <ele>805.9</ele>
        <time>2016-07-31T11:14:08Z</time>
      </trkpt>
      <trkpt lat="42.42307" lon="0.06613">
        <ele>805.5</ele>
        <time>2016-07-31T11:14:09Z</time>
      </trkpt>
      <trkpt lat="42.42311" lon="0.06617">
        <ele>805</ele>
        <time>2016-07-31T11:14:10Z</time>
      </trkpt>
      <trkpt lat="42.42316" lon="0.0662">
        <ele>804.4</ele>
        <time>2016-07-31T11:14:11Z</time>
      </trkpt>
      <trkpt lat="42.42319" lon="0.06625">
        <ele>803.5</ele>
        <time>2016-07-31T11:14:12Z</time>
      </trkpt>
      <trkpt lat="42.42323" lon="0.0663">
        <ele>802.6</ele>
        <time>2016-07-31T11:14:13Z</time>
      </trkpt>
      <trkpt lat="42.42326" lon="0.06635">
        <ele>801.6</ele>
        <time>2016-07-31T11:14:14Z</time>
      </trkpt>
      <trkpt lat="42.42328" lon="0.06641">
        <ele>800.6</ele>
        <time>2016-07-31T11:14:15Z</time>
      </trkpt>
      <trkpt lat="42.4233" lon="0.06646">
        <ele>799.5</ele>
        <time>2016-07-31T11:14:16Z</time>
      </trkpt>
      <trkpt lat="42.42331" lon="0.06651">
        <ele>798.4</ele>
        <time>2016-07-31T11:14:17Z</time>
      </trkpt>
      <trkpt lat="42.42333" lon="0.06655">
        <ele>797.6</ele>
        <time>2016-07-31T11:14:18Z</time>
      </trkpt>
      <trkpt lat="42.42336" lon="0.06658">
        <ele>797.2</ele>
        <time>2016-07-31T11:14:19Z</time>
      </trkpt>
      <trkpt lat="42.4234" lon="0.06661">
        <ele>797</ele>
        <time>2016-07-31T11:14:20Z</time>
      </trkpt>
      <trkpt lat="42.42345" lon="0.06663">
        <ele>797</ele>
        <time>2016-07-31T11:14:21Z</time>
      </trkpt>
      <trkpt lat="42.42349" lon="0.06664">
        <ele>797</ele>
        <time>2016-07-31T11:14:22Z</time>
      </trkpt>
      <trkpt lat="42.42354" lon="0.06666">
        <ele>797</ele>
        <time>2016-07-31T11:14:23Z</time>
      </trkpt>
      <trkpt lat="42.42359" lon="0.06668">
        <ele>796.9</ele>
        <time>2016-07-31T11:14:24Z</time>
      </trkpt>
      <trkpt lat="42.42365" lon="0.06671">
        <ele>796.9</ele>
        <time>2016-07-31T11:14:25Z</time>
      </trkpt>
      <trkpt lat="42.42371" lon="0.06673">
        <ele>796.9</ele>
        <time>2016-07-31T11:14:26Z</time>
      </trkpt>
      <trkpt lat="42.42378" lon="0.06676">
        <ele>797</ele>
        <time>2016-07-31T11:14:27Z</time>
      </trkpt>
      <trkpt lat="42.42384" lon="0.06678">
        <ele>797.3</ele>
        <time>2016-07-31T11:14:28Z</time>
      </trkpt>
      <trkpt lat="42.42389" lon="0.06679">
        <ele>797.6</ele>
        <time>2016-07-31T11:14:29Z</time>
      </trkpt>
      <trkpt lat="42.42393" lon="0.06681">
        <ele>797.7</ele>
        <time>2016-07-31T11:14:30Z</time>
      </trkpt>
      <trkpt lat="42.42398" lon="0.06683">
        <ele>797.7</ele>
        <time>2016-07-31T11:14:31Z</time>
      </trkpt>
      <trkpt lat="42.42401" lon="0.06686">
        <ele>797.4</ele>
        <time>2016-07-31T11:14:32Z</time>
      </trkpt>
      <trkpt lat="42.42405" lon="0.06689">
        <ele>797.1</ele>
        <time>2016-07-31T11:14:33Z</time>
      </trkpt>
      <trkpt lat="42.42408" lon="0.06693">
        <ele>796.6</ele>
        <time>2016-07-31T11:14:34Z</time>
      </trkpt>
      <trkpt lat="42.42411" lon="0.06696">
        <ele>796</ele>
        <time>2016-07-31T11:14:35Z</time>
      </trkpt>
      <trkpt lat="42.42414" lon="0.067">
        <ele>795.4</ele>
        <time>2016-07-31T11:14:36Z</time>
      </trkpt>
      <trkpt lat="42.42417" lon="0.06704">
        <ele>794.8</ele>
        <time>2016-07-31T11:14:37Z</time>
      </trkpt>
      <trkpt lat="42.42419" lon="0.06706">
        <ele>794.3</ele>
        <time>2016-07-31T11:14:38Z</time>
      </trkpt>
      <trkpt lat="42.42421" lon="0.06709">
        <ele>793.8</ele>
        <time>2016-07-31T11:14:39Z</time>
      </trkpt>
      <trkpt lat="42.42423" lon="0.06713">
        <ele>793.2</ele>
        <time>2016-07-31T11:14:40Z</time>
      </trkpt>
      <trkpt lat="42.42425" lon="0.06718">
        <ele>792.3</ele>
        <time>2016-07-31T11:14:41Z</time>
      </trkpt>
      <trkpt lat="42.42427" lon="0.06723">
        <ele>791.3</ele>
        <time>2016-07-31T11:14:42Z</time>
      </trkpt>
      <trkpt lat="42.4243" lon="0.06728">
        <ele>790.5</ele>
        <time>2016-07-31T11:14:43Z</time>
      </trkpt>
      <trkpt lat="42.42433" lon="0.06732">
        <ele>790</ele>
        <time>2016-07-31T11:14:44Z</time>
      </trkpt>
      <trkpt lat="42.42436" lon="0.06734">
        <ele>789.8</ele>
        <time>2016-07-31T11:14:45Z</time>
      </trkpt>
      <trkpt lat="42.42439" lon="0.06737">
        <ele>789.5</ele>
        <time>2016-07-31T11:14:47Z</time>
      </trkpt>
      <trkpt lat="42.42441" lon="0.06742">
        <ele>788.5</ele>
        <time>2016-07-31T11:14:49Z</time>
      </trkpt>
      <trkpt lat="42.42437" lon="0.06746">
        <ele>787.1</ele>
        <time>2016-07-31T11:14:51Z</time>
      </trkpt>
      <trkpt lat="42.42433" lon="0.06747">
        <ele>786.2</ele>
        <time>2016-07-31T11:14:52Z</time>
      </trkpt>
      <trkpt lat="42.4243" lon="0.06747">
        <ele>785.7</ele>
        <time>2016-07-31T11:14:54Z</time>
      </trkpt>
      <trkpt lat="42.42431" lon="0.06753">
        <ele>784.5</ele>
        <time>2016-07-31T11:14:58Z</time>
      </trkpt>
      <trkpt lat="42.42433" lon="0.06757">
        <ele>783.8</ele>
        <time>2016-07-31T11:14:59Z</time>
      </trkpt>
      <trkpt lat="42.42435" lon="0.06761">
        <ele>783</ele>
        <time>2016-07-31T11:15:00Z</time>
      </trkpt>
      <trkpt lat="42.42436" lon="0.06766">
        <ele>782.2</ele>
        <time>2016-07-31T11:15:01Z</time>
      </trkpt>
      <trkpt lat="42.42438" lon="0.06769">
        <ele>781.7</ele>
        <time>2016-07-31T11:15:02Z</time>
      </trkpt>
      <trkpt lat="42.42442" lon="0.06771">
        <ele>781.6</ele>
        <time>2016-07-31T11:15:04Z</time>
      </trkpt>
      <trkpt lat="42.42444" lon="0.06775">
        <ele>781</ele>
        <time>2016-07-31T11:15:06Z</time>
      </trkpt>
      <trkpt lat="42.42441" lon="0.06779">
        <ele>779.5</ele>
        <time>2016-07-31T11:15:08Z</time>
      </trkpt>
      <trkpt lat="42.42438" lon="0.06781">
        <ele>778.7</ele>
        <time>2016-07-31T11:15:09Z</time>
      </trkpt>
      <trkpt lat="42.42435" lon="0.06783">
        <ele>777.8</ele>
        <time>2016-07-31T11:15:10Z</time>
      </trkpt>
      <trkpt lat="42.42432" lon="0.06783">
        <ele>777.3</ele>
        <time>2016-07-31T11:15:11Z</time>
      </trkpt>
      <trkpt lat="42.42428" lon="0.06782">
        <ele>777</ele>
        <time>2016-07-31T11:15:12Z</time>
      </trkpt>
      <trkpt lat="42.42425" lon="0.06781">
        <ele>776.9</ele>
        <time>2016-07-31T11:15:13Z</time>
      </trkpt>
      <trkpt lat="42.42422" lon="0.06779">
        <ele>777</ele>
        <time>2016-07-31T11:15:14Z</time>
      </trkpt>
      <trkpt lat="42.42419" lon="0.06778">
        <ele>776.8</ele>
        <time>2016-07-31T11:15:15Z</time>
      </trkpt>
      <trkpt lat="42.42416" lon="0.06782">
        <ele>775.4</ele>
        <time>2016-07-31T11:15:17Z</time>
      </trkpt>
      <trkpt lat="42.42416" lon="0.06786">
        <ele>774.3</ele>
        <time>2016-07-31T11:15:18Z</time>
      </trkpt>
      <trkpt lat="42.42417" lon="0.0679">
        <ele>773.3</ele>
        <time>2016-07-31T11:15:19Z</time>
      </trkpt>
      <trkpt lat="42.42418" lon="0.06794">
        <ele>772.7</ele>
        <time>2016-07-31T11:15:20Z</time>
      </trkpt>
      <trkpt lat="42.42421" lon="0.06799">
        <ele>772.3</ele>
        <time>2016-07-31T11:15:22Z</time>
      </trkpt>
      <trkpt lat="42.42424" lon="0.06801">
        <ele>772.5</ele>
        <time>2016-07-31T11:15:23Z</time>
      </trkpt>
      <trkpt lat="42.42428" lon="0.06802">
        <ele>772.9</ele>
        <time>2016-07-31T11:15:24Z</time>
      </trkpt>
      <trkpt lat="42.42433" lon="0.06803">
        <ele>773.2</ele>
        <time>2016-07-31T11:15:25Z</time>
      </trkpt>
      <trkpt lat="42.42437" lon="0.06805">
        <ele>773.4</ele>
        <time>2016-07-31T11:15:26Z</time>
      </trkpt>
      <trkpt lat="42.4244" lon="0.06807">
        <ele>773.5</ele>
        <time>2016-07-31T11:15:27Z</time>
      </trkpt>
      <trkpt lat="42.42442" lon="0.06809">
        <ele>773.4</ele>
        <time>2016-07-31T11:15:28Z</time>
      </trkpt>
      <trkpt lat="42.42441" lon="0.06813">
        <ele>772.4</ele>
        <time>2016-07-31T11:15:32Z</time>
      </trkpt>
      <trkpt lat="42.42438" lon="0.06816">
        <ele>771.5</ele>
        <time>2016-07-31T11:15:34Z</time>
      </trkpt>
      <trkpt lat="42.42437" lon="0.06819">
        <ele>770.7</ele>
        <time>2016-07-31T11:15:36Z</time>
      </trkpt>
      <trkpt lat="42.4244" lon="0.06823">
        <ele>770.6</ele>
        <time>2016-07-31T11:15:40Z</time>
      </trkpt>
      <trkpt lat="42.42445" lon="0.06824">
        <ele>770.9</ele>
        <time>2016-07-31T11:15:42Z</time>
      </trkpt>
      <trkpt lat="42.42448" lon="0.06825">
        <ele>771.2</ele>
        <time>2016-07-31T11:15:43Z</time>
      </trkpt>
      <trkpt lat="42.42451" lon="0.06825">
        <ele>771.5</ele>
        <time>2016-07-31T11:15:44Z</time>
      </trkpt>
      <trkpt lat="42.42454" lon="0.06826">
        <ele>771.9</ele>
        <time>2016-07-31T11:15:45Z</time>
      </trkpt>
      <trkpt lat="42.42458" lon="0.06826">
        <ele>772.3</ele>
        <time>2016-07-31T11:15:46Z</time>
      </trkpt>
      <trkpt lat="42.42461" lon="0.06827">
        <ele>772</ele>
        <time>2016-07-31T11:15:47Z</time>
      </trkpt>
      <trkpt lat="42.42465" lon="0.06829">
        <ele>771.3</ele>
        <time>2016-07-31T11:15:48Z</time>
      </trkpt>
      <trkpt lat="42.42468" lon="0.06831">
        <ele>770.7</ele>
        <time>2016-07-31T11:15:49Z</time>
      </trkpt>
      <trkpt lat="42.42472" lon="0.06834">
        <ele>769.9</ele>
        <time>2016-07-31T11:15:51Z</time>
      </trkpt>
      <trkpt lat="42.42476" lon="0.06835">
        <ele>769.4</ele>
        <time>2016-07-31T11:15:53Z</time>
      </trkpt>
      <trkpt lat="42.42478" lon="0.06836">
        <ele>769</ele>
        <time>2016-07-31T11:15:55Z</time>
      </trkpt>
      <trkpt lat="42.4248" lon="0.0684">
        <ele>768</ele>
        <time>2016-07-31T11:15:57Z</time>
      </trkpt>
      <trkpt lat="42.42478" lon="0.06845">
        <ele>767.1</ele>
        <time>2016-07-31T11:15:59Z</time>
      </trkpt>
      <trkpt lat="42.42475" lon="0.06848">
        <ele>766.6</ele>
        <time>2016-07-31T11:16:00Z</time>
      </trkpt>
      <trkpt lat="42.42473" lon="0.06851">
        <ele>766.3</ele>
        <time>2016-07-31T11:16:01Z</time>
      </trkpt>
      <trkpt lat="42.42471" lon="0.06854">
        <ele>765.9</ele>
        <time>2016-07-31T11:16:02Z</time>
      </trkpt>
      <trkpt lat="42.42467" lon="0.06858">
        <ele>765.4</ele>
        <time>2016-07-31T11:16:03Z</time>
      </trkpt>
      <trkpt lat="42.42464" lon="0.06861">
        <ele>765</ele>
        <time>2016-07-31T11:16:04Z</time>
      </trkpt>
      <trkpt lat="42.42462" lon="0.06864">
        <ele>764.7</ele>
        <time>2016-07-31T11:16:05Z</time>
      </trkpt>
      <trkpt lat="42.42463" lon="0.06869">
        <ele>763.7</ele>
        <time>2016-07-31T11:16:08Z</time>
      </trkpt>
      <trkpt lat="42.42467" lon="0.06871">
        <ele>762.7</ele>
        <time>2016-07-31T11:16:10Z</time>
      </trkpt>
      <trkpt lat="42.4247" lon="0.06872">
        <ele>762.3</ele>
        <time>2016-07-31T11:16:11Z</time>
      </trkpt>
      <trkpt lat="42.42474" lon="0.06872">
        <ele>761.8</ele>
        <time>2016-07-31T11:16:13Z</time>
      </trkpt>
      <trkpt lat="42.42475" lon="0.06877">
        <ele>760.7</ele>
        <time>2016-07-31T11:16:16Z</time>
      </trkpt>
      <trkpt lat="42.42477" lon="0.06881">
        <ele>760.2</ele>
        <time>2016-07-31T11:16:18Z</time>
      </trkpt>
      <trkpt lat="42.42481" lon="0.06882">
        <ele>759.5</ele>
        <time>2016-07-31T11:16:20Z</time>
      </trkpt>
      <trkpt lat="42.42484" lon="0.06883">
        <ele>759.1</ele>
        <time>2016-07-31T11:16:21Z</time>
      </trkpt>
      <trkpt lat="42.42488" lon="0.06885">
        <ele>758.2</ele>
        <time>2016-07-31T11:16:23Z</time>
      </trkpt>
      <trkpt lat="42.42492" lon="0.06889">
        <ele>757.3</ele>
        <time>2016-07-31T11:16:25Z</time>
      </trkpt>
      <trkpt lat="42.42494" lon="0.0689">
        <ele>756.7</ele>
        <time>2016-07-31T11:16:26Z</time>
      </trkpt>
      <trkpt lat="42.42499" lon="0.06891">
        <ele>756</ele>
        <time>2016-07-31T11:16:28Z</time>
      </trkpt>
      <trkpt lat="42.42501" lon="0.06892">
        <ele>755.3</ele>
        <time>2016-07-31T11:16:31Z</time>
      </trkpt>
      <trkpt lat="42.42501" lon="0.06898">
        <ele>754.6</ele>
        <time>2016-07-31T11:16:33Z</time>
      </trkpt>
      <trkpt lat="42.42499" lon="0.06904">
        <ele>754</ele>
        <time>2016-07-31T11:16:35Z</time>
      </trkpt>
      <trkpt lat="42.42498" lon="0.06907">
        <ele>753.8</ele>
        <time>2016-07-31T11:16:36Z</time>
      </trkpt>
      <trkpt lat="42.42496" lon="0.06913">
        <ele>753.3</ele>
        <time>2016-07-31T11:16:38Z</time>
      </trkpt>
      <trkpt lat="42.42496" lon="0.06917">
        <ele>752.7</ele>
        <time>2016-07-31T11:16:47Z</time>
      </trkpt>
      <trkpt lat="42.425" lon="0.06915">
        <ele>752.4</ele>
        <time>2016-07-31T11:16:51Z</time>
      </trkpt>
      <trkpt lat="42.42503" lon="0.06912">
        <ele>752.1</ele>
        <time>2016-07-31T11:16:53Z</time>
      </trkpt>
      <trkpt lat="42.42506" lon="0.0691">
        <ele>751.8</ele>
        <time>2016-07-31T11:16:54Z</time>
      </trkpt>
      <trkpt lat="42.4251" lon="0.06907">
        <ele>751.5</ele>
        <time>2016-07-31T11:16:55Z</time>
      </trkpt>
      <trkpt lat="42.42513" lon="0.06905">
        <ele>751.4</ele>
        <time>2016-07-31T11:16:56Z</time>
      </trkpt>
      <trkpt lat="42.42516" lon="0.06903">
        <ele>751.2</ele>
        <time>2016-07-31T11:16:57Z</time>
      </trkpt>
      <trkpt lat="42.42519" lon="0.06901">
        <ele>751</ele>
        <time>2016-07-31T11:16:58Z</time>
      </trkpt>
      <trkpt lat="42.42523" lon="0.06899">
        <ele>750.7</ele>
        <time>2016-07-31T11:17:00Z</time>
      </trkpt>
      <trkpt lat="42.42526" lon="0.06897">
        <ele>750.5</ele>
        <time>2016-07-31T11:17:02Z</time>
      </trkpt>
      <trkpt lat="42.42529" lon="0.06895">
        <ele>750.6</ele>
        <time>2016-07-31T11:17:04Z</time>
      </trkpt>
      <trkpt lat="42.42533" lon="0.06891">
        <ele>750.7</ele>
        <time>2016-07-31T11:17:06Z</time>
      </trkpt>
      <trkpt lat="42.42537" lon="0.06887">
        <ele>750.9</ele>
        <time>2016-07-31T11:17:08Z</time>
      </trkpt>
      <trkpt lat="42.42541" lon="0.06883">
        <ele>751.3</ele>
        <time>2016-07-31T11:17:10Z</time>
      </trkpt>
      <trkpt lat="42.42544" lon="0.06881">
        <ele>750.7</ele>
        <time>2016-07-31T11:17:11Z</time>
      </trkpt>
      <trkpt lat="42.42547" lon="0.06879">
        <ele>749.6</ele>
        <time>2016-07-31T11:17:12Z</time>
      </trkpt>
      <trkpt lat="42.42551" lon="0.06876">
        <ele>748.4</ele>
        <time>2016-07-31T11:17:13Z</time>
      </trkpt>
      <trkpt lat="42.42555" lon="0.06873">
        <ele>747.4</ele>
        <time>2016-07-31T11:17:14Z</time>
      </trkpt>
      <trkpt lat="42.4256" lon="0.0687">
        <ele>746.1</ele>
        <time>2016-07-31T11:17:15Z</time>
      </trkpt>
      <trkpt lat="42.42564" lon="0.06867">
        <ele>745.1</ele>
        <time>2016-07-31T11:17:16Z</time>
      </trkpt>
      <trkpt lat="42.42568" lon="0.06865">
        <ele>744.2</ele>
        <time>2016-07-31T11:17:17Z</time>
      </trkpt>
      <trkpt lat="42.42571" lon="0.06863">
        <ele>743.4</ele>
        <time>2016-07-31T11:17:18Z</time>
      </trkpt>
      <trkpt lat="42.42574" lon="0.06861">
        <ele>742.5</ele>
        <time>2016-07-31T11:17:19Z</time>
      </trkpt>
      <trkpt lat="42.42578" lon="0.06858">
        <ele>741.8</ele>
        <time>2016-07-31T11:17:20Z</time>
      </trkpt>
      <trkpt lat="42.42582" lon="0.06855">
        <ele>741.1</ele>
        <time>2016-07-31T11:17:21Z</time>
      </trkpt>
      <trkpt lat="42.42586" lon="0.06851">
        <ele>740.6</ele>
        <time>2016-07-31T11:17:22Z</time>
      </trkpt>
      <trkpt lat="42.42589" lon="0.06847">
        <ele>740.3</ele>
        <time>2016-07-31T11:17:23Z</time>
      </trkpt>
      <trkpt lat="42.4259" lon="0.06844">
        <ele>741</ele>
        <time>2016-07-31T11:17:30Z</time>
      </trkpt>
      <trkpt lat="42.42593" lon="0.06843">
        <ele>740</ele>
        <time>2016-07-31T11:17:33Z</time>
      </trkpt>
      <trkpt lat="42.42596" lon="0.0684">
        <ele>739.4</ele>
        <time>2016-07-31T11:17:36Z</time>
      </trkpt>
      <trkpt lat="42.42599" lon="0.06837">
        <ele>739.1</ele>
        <time>2016-07-31T11:17:40Z</time>
      </trkpt>
      <trkpt lat="42.426" lon="0.06834">
        <ele>739.6</ele>
        <time>2016-07-31T11:17:44Z</time>
      </trkpt>
      <trkpt lat="42.42603" lon="0.06831">
        <ele>739.6</ele>
        <time>2016-07-31T11:17:47Z</time>
      </trkpt>
      <trkpt lat="42.42605" lon="0.06831">
        <ele>738.2</ele>
        <time>2016-07-31T11:17:51Z</time>
      </trkpt>
      <trkpt lat="42.42609" lon="0.06832">
        <ele>736.1</ele>
        <time>2016-07-31T11:17:54Z</time>
      </trkpt>
      <trkpt lat="42.42614" lon="0.06832">
        <ele>734.2</ele>
        <time>2016-07-31T11:17:56Z</time>
      </trkpt>
      <trkpt lat="42.42618" lon="0.0683">
        <ele>733</ele>
        <time>2016-07-31T11:17:58Z</time>
      </trkpt>
      <trkpt lat="42.42623" lon="0.06829">
        <ele>731.6</ele>
        <time>2016-07-31T11:18:00Z</time>
      </trkpt>
      <trkpt lat="42.42626" lon="0.06827">
        <ele>730.5</ele>
        <time>2016-07-31T11:18:02Z</time>
      </trkpt>
      <trkpt lat="42.42629" lon="0.06825">
        <ele>730</ele>
        <time>2016-07-31T11:18:04Z</time>
      </trkpt>
      <trkpt lat="42.42632" lon="0.06822">
        <ele>729.9</ele>
        <time>2016-07-31T11:18:06Z</time>
      </trkpt>
      <trkpt lat="42.42635" lon="0.06818">
        <ele>729.6</ele>
        <time>2016-07-31T11:18:08Z</time>
      </trkpt>
      <trkpt lat="42.42638" lon="0.06816">
        <ele>728.7</ele>
        <time>2016-07-31T11:18:09Z</time>
      </trkpt>
      <trkpt lat="42.42642" lon="0.06814">
        <ele>727.6</ele>
        <time>2016-07-31T11:18:10Z</time>
      </trkpt>
      <trkpt lat="42.42646" lon="0.06811">
        <ele>726.7</ele>
        <time>2016-07-31T11:18:11Z</time>
      </trkpt>
      <trkpt lat="42.4265" lon="0.06806">
        <ele>726.3</ele>
        <time>2016-07-31T11:18:12Z</time>
      </trkpt>
      <trkpt lat="42.42653" lon="0.06802">
        <ele>726.1</ele>
        <time>2016-07-31T11:18:13Z</time>
      </trkpt>
      <trkpt lat="42.42655" lon="0.06799">
        <ele>726.1</ele>
        <time>2016-07-31T11:18:14Z</time>
      </trkpt>
      <trkpt lat="42.42657" lon="0.06796">
        <ele>725.9</ele>
        <time>2016-07-31T11:18:15Z</time>
      </trkpt>
      <trkpt lat="42.4266" lon="0.06792">
        <ele>725.6</ele>
        <time>2016-07-31T11:18:16Z</time>
      </trkpt>
      <trkpt lat="42.42663" lon="0.06789">
        <ele>725</ele>
        <time>2016-07-31T11:18:17Z</time>
      </trkpt>
      <trkpt lat="42.42665" lon="0.06784">
        <ele>724.8</ele>
        <time>2016-07-31T11:18:18Z</time>
      </trkpt>
      <trkpt lat="42.42667" lon="0.0678">
        <ele>725</ele>
        <time>2016-07-31T11:18:19Z</time>
      </trkpt>
      <trkpt lat="42.42667" lon="0.06776">
        <ele>725.8</ele>
        <time>2016-07-31T11:18:20Z</time>
      </trkpt>
      <trkpt lat="42.42667" lon="0.06772">
        <ele>726.6</ele>
        <time>2016-07-31T11:18:22Z</time>
      </trkpt>
      <trkpt lat="42.42672" lon="0.06769">
        <ele>725.1</ele>
        <time>2016-07-31T11:18:24Z</time>
      </trkpt>
      <trkpt lat="42.42677" lon="0.0677">
        <ele>722.4</ele>
        <time>2016-07-31T11:18:26Z</time>
      </trkpt>
      <trkpt lat="42.4268" lon="0.06771">
        <ele>720.6</ele>
        <time>2016-07-31T11:18:27Z</time>
      </trkpt>
      <trkpt lat="42.42682" lon="0.06773">
        <ele>719</ele>
        <time>2016-07-31T11:18:28Z</time>
      </trkpt>
      <trkpt lat="42.42684" lon="0.06776">
        <ele>717.2</ele>
        <time>2016-07-31T11:18:29Z</time>
      </trkpt>
      <trkpt lat="42.42688" lon="0.06777">
        <ele>715.1</ele>
        <time>2016-07-31T11:18:30Z</time>
      </trkpt>
      <trkpt lat="42.42692" lon="0.06779">
        <ele>712.7</ele>
        <time>2016-07-31T11:18:31Z</time>
      </trkpt>
      <trkpt lat="42.42696" lon="0.06779">
        <ele>710.7</ele>
        <time>2016-07-31T11:18:32Z</time>
      </trkpt>
      <trkpt lat="42.427" lon="0.06778">
        <ele>709.1</ele>
        <time>2016-07-31T11:18:33Z</time>
      </trkpt>
      <trkpt lat="42.42703" lon="0.06776">
        <ele>707.6</ele>
        <time>2016-07-31T11:18:34Z</time>
      </trkpt>
      <trkpt lat="42.42706" lon="0.06775">
        <ele>706.3</ele>
        <time>2016-07-31T11:18:35Z</time>
      </trkpt>
      <trkpt lat="42.42711" lon="0.06774">
        <ele>704.8</ele>
        <time>2016-07-31T11:18:37Z</time>
      </trkpt>
      <trkpt lat="42.42717" lon="0.06773">
        <ele>703.3</ele>
        <time>2016-07-31T11:18:39Z</time>
      </trkpt>
      <trkpt lat="42.4272" lon="0.06772">
        <ele>702.7</ele>
        <time>2016-07-31T11:18:40Z</time>
      </trkpt>
      <trkpt lat="42.42723" lon="0.06771">
        <ele>702.1</ele>
        <time>2016-07-31T11:18:41Z</time>
      </trkpt>
      <trkpt lat="42.42726" lon="0.0677">
        <ele>701.3</ele>
        <time>2016-07-31T11:18:42Z</time>
      </trkpt>
      <trkpt lat="42.4273" lon="0.06769">
        <ele>700.3</ele>
        <time>2016-07-31T11:18:44Z</time>
      </trkpt>
      <trkpt lat="42.42734" lon="0.06765">
        <ele>699.8</ele>
        <time>2016-07-31T11:18:46Z</time>
      </trkpt>
      <trkpt lat="42.42738" lon="0.06766">
        <ele>698.6</ele>
        <time>2016-07-31T11:18:49Z</time>
      </trkpt>
      <trkpt lat="42.42738" lon="0.06773">
        <ele>697.1</ele>
        <time>2016-07-31T11:18:51Z</time>
      </trkpt>
      <trkpt lat="42.42739" lon="0.06779">
        <ele>695.6</ele>
        <time>2016-07-31T11:18:53Z</time>
      </trkpt>
      <trkpt lat="42.4274" lon="0.06783">
        <ele>694.5</ele>
        <time>2016-07-31T11:18:55Z</time>
      </trkpt>
      <trkpt lat="42.42743" lon="0.06785">
        <ele>693.4</ele>
        <time>2016-07-31T11:18:58Z</time>
      </trkpt>
      <trkpt lat="42.42745" lon="0.06788">
        <ele>692.3</ele>
        <time>2016-07-31T11:19:00Z</time>
      </trkpt>
      <trkpt lat="42.42745" lon="0.06792">
        <ele>691.5</ele>
        <time>2016-07-31T11:19:03Z</time>
      </trkpt>
      <trkpt lat="42.42749" lon="0.06793">
        <ele>690</ele>
        <time>2016-07-31T11:19:06Z</time>
      </trkpt>
      <trkpt lat="42.42753" lon="0.06792">
        <ele>689.2</ele>
        <time>2016-07-31T11:19:07Z</time>
      </trkpt>
      <trkpt lat="42.42756" lon="0.0679">
        <ele>688.6</ele>
        <time>2016-07-31T11:19:08Z</time>
      </trkpt>
      <trkpt lat="42.42756" lon="0.06795">
        <ele>687.3</ele>
        <time>2016-07-31T11:19:14Z</time>
      </trkpt>
      <trkpt lat="42.42755" lon="0.06798">
        <ele>686.9</ele>
        <time>2016-07-31T11:19:15Z</time>
      </trkpt>
      <trkpt lat="42.42754" lon="0.06805">
        <ele>685.7</ele>
        <time>2016-07-31T11:19:17Z</time>
      </trkpt>
      <trkpt lat="42.42755" lon="0.06809">
        <ele>684.2</ele>
        <time>2016-07-31T11:19:19Z</time>
      </trkpt>
      <trkpt lat="42.42758" lon="0.06812">
        <ele>682.7</ele>
        <time>2016-07-31T11:19:21Z</time>
      </trkpt>
      <trkpt lat="42.42759" lon="0.06818">
        <ele>680.6</ele>
        <time>2016-07-31T11:19:23Z</time>
      </trkpt>
      <trkpt lat="42.4276" lon="0.06822">
        <ele>679.4</ele>
        <time>2016-07-31T11:19:24Z</time>
      </trkpt>
      <trkpt lat="42.4276" lon="0.06826">
        <ele>678.2</ele>
        <time>2016-07-31T11:19:25Z</time>
      </trkpt>
      <trkpt lat="42.42762" lon="0.06832">
        <ele>676.1</ele>
        <time>2016-07-31T11:19:27Z</time>
      </trkpt>
      <trkpt lat="42.42765" lon="0.06834">
        <ele>674.8</ele>
        <time>2016-07-31T11:19:28Z</time>
      </trkpt>
      <trkpt lat="42.42769" lon="0.06836">
        <ele>673.1</ele>
        <time>2016-07-31T11:19:30Z</time>
      </trkpt>
      <trkpt lat="42.42771" lon="0.06842">
        <ele>671.3</ele>
        <time>2016-07-31T11:19:32Z</time>
      </trkpt>
      <trkpt lat="42.42771" lon="0.06846">
        <ele>670</ele>
        <time>2016-07-31T11:19:34Z</time>
      </trkpt>
      <trkpt lat="42.42775" lon="0.06849">
        <ele>668.3</ele>
        <time>2016-07-31T11:19:36Z</time>
      </trkpt>
      <trkpt lat="42.42779" lon="0.06853">
        <ele>666.1</ele>
        <time>2016-07-31T11:19:38Z</time>
      </trkpt>
      <trkpt lat="42.42781" lon="0.06856">
        <ele>664.8</ele>
        <time>2016-07-31T11:19:39Z</time>
      </trkpt>
      <trkpt lat="42.42785" lon="0.06857">
        <ele>663.2</ele>
        <time>2016-07-31T11:19:41Z</time>
      </trkpt>
      <trkpt lat="42.4279" lon="0.06856">
        <ele>662.3</ele>
        <time>2016-07-31T11:19:43Z</time>
      </trkpt>
      <trkpt lat="42.42793" lon="0.06854">
        <ele>662.2</ele>
        <time>2016-07-31T11:19:44Z</time>
      </trkpt>
      <trkpt lat="42.42795" lon="0.06852">
        <ele>662.3</ele>
        <time>2016-07-31T11:19:50Z</time>
      </trkpt>
      <trkpt lat="42.42799" lon="0.06854">
        <ele>661.2</ele>
        <time>2016-07-31T11:19:53Z</time>
      </trkpt>
      <trkpt lat="42.42802" lon="0.06857">
        <ele>659.9</ele>
        <time>2016-07-31T11:19:57Z</time>
      </trkpt>
      <trkpt lat="42.42807" lon="0.06858">
        <ele>658.9</ele>
        <time>2016-07-31T11:19:59Z</time>
      </trkpt>
      <trkpt lat="42.42811" lon="0.06857">
        <ele>658.7</ele>
        <time>2016-07-31T11:20:00Z</time>
      </trkpt>
      <trkpt lat="42.42814" lon="0.06854">
        <ele>658.7</ele>
        <time>2016-07-31T11:20:01Z</time>
      </trkpt>
      <trkpt lat="42.42817" lon="0.06851">
        <ele>658.9</ele>
        <time>2016-07-31T11:20:02Z</time>
      </trkpt>
      <trkpt lat="42.42819" lon="0.06849">
        <ele>659.1</ele>
        <time>2016-07-31T11:20:03Z</time>
      </trkpt>
      <trkpt lat="42.42822" lon="0.06846">
        <ele>659.2</ele>
        <time>2016-07-31T11:20:04Z</time>
      </trkpt>
      <trkpt lat="42.42825" lon="0.06843">
        <ele>659.2</ele>
        <time>2016-07-31T11:20:05Z</time>
      </trkpt>
      <trkpt lat="42.42828" lon="0.06841">
        <ele>659.2</ele>
        <time>2016-07-31T11:20:06Z</time>
      </trkpt>
      <trkpt lat="42.42832" lon="0.06838">
        <ele>659</ele>
        <time>2016-07-31T11:20:07Z</time>
      </trkpt>
      <trkpt lat="42.42835" lon="0.06836">
        <ele>658.8</ele>
        <time>2016-07-31T11:20:08Z</time>
      </trkpt>
      <trkpt lat="42.42838" lon="0.06834">
        <ele>658.7</ele>
        <time>2016-07-31T11:20:09Z</time>
      </trkpt>
      <trkpt lat="42.42841" lon="0.06831">
        <ele>658.7</ele>
        <time>2016-07-31T11:20:10Z</time>
      </trkpt>
      <trkpt lat="42.42843" lon="0.06828">
        <ele>659.1</ele>
        <time>2016-07-31T11:20:11Z</time>
      </trkpt>
      <trkpt lat="42.42843" lon="0.06823">
        <ele>659.8</ele>
        <time>2016-07-31T11:20:13Z</time>
      </trkpt>
      <trkpt lat="42.4284" lon="0.06821">
        <ele>660.8</ele>
        <time>2016-07-31T11:20:18Z</time>
      </trkpt>
      <trkpt lat="42.42841" lon="0.06825">
        <ele>660</ele>
        <time>2016-07-31T11:20:32Z</time>
      </trkpt>
      <trkpt lat="42.42837" lon="0.06829">
        <ele>659.8</ele>
        <time>2016-07-31T11:20:34Z</time>
      </trkpt>
      <trkpt lat="42.42835" lon="0.06831">
        <ele>659.9</ele>
        <time>2016-07-31T11:20:35Z</time>
      </trkpt>
      <trkpt lat="42.42832" lon="0.06834">
        <ele>659.8</ele>
        <time>2016-07-31T11:20:36Z</time>
      </trkpt>
      <trkpt lat="42.42829" lon="0.06837">
        <ele>659.7</ele>
        <time>2016-07-31T11:20:37Z</time>
      </trkpt>
      <trkpt lat="42.42826" lon="0.06841">
        <ele>659.5</ele>
        <time>2016-07-31T11:20:38Z</time>
      </trkpt>
      <trkpt lat="42.42823" lon="0.06845">
        <ele>659.2</ele>
        <time>2016-07-31T11:20:39Z</time>
      </trkpt>
      <trkpt lat="42.4282" lon="0.06849">
        <ele>658.9</ele>
        <time>2016-07-31T11:20:40Z</time>
      </trkpt>
      <trkpt lat="42.42818" lon="0.06852">
        <ele>658.7</ele>
        <time>2016-07-31T11:20:41Z</time>
      </trkpt>
      <trkpt lat="42.42815" lon="0.06854">
        <ele>658.6</ele>
        <time>2016-07-31T11:20:42Z</time>
      </trkpt>
      <trkpt lat="42.42811" lon="0.06855">
        <ele>658.9</ele>
        <time>2016-07-31T11:20:43Z</time>
      </trkpt>
      <trkpt lat="42.42808" lon="0.06855">
        <ele>659.4</ele>
        <time>2016-07-31T11:20:44Z</time>
      </trkpt>
      <trkpt lat="42.42805" lon="0.06855">
        <ele>660</ele>
        <time>2016-07-31T11:20:45Z</time>
      </trkpt>
      <trkpt lat="42.42802" lon="0.06855">
        <ele>660.5</ele>
        <time>2016-07-31T11:20:46Z</time>
      </trkpt>
      <trkpt lat="42.42799" lon="0.06855">
        <ele>660.9</ele>
        <time>2016-07-31T11:20:49Z</time>
      </trkpt>
      <trkpt lat="42.42796" lon="0.06856">
        <ele>661</ele>
        <time>2016-07-31T11:20:56Z</time>
      </trkpt>
      <trkpt lat="42.42799" lon="0.06856">
        <ele>660.7</ele>
        <time>2016-07-31T11:21:18Z</time>
      </trkpt>
      <trkpt lat="42.42804" lon="0.06856">
        <ele>659.8</ele>
        <time>2016-07-31T11:21:20Z</time>
      </trkpt>
      <trkpt lat="42.42807" lon="0.06856">
        <ele>659.3</ele>
        <time>2016-07-31T11:21:21Z</time>
      </trkpt>
      <trkpt lat="42.42811" lon="0.06855">
        <ele>658.9</ele>
        <time>2016-07-31T11:21:22Z</time>
      </trkpt>
      <trkpt lat="42.42814" lon="0.06853">
        <ele>658.9</ele>
        <time>2016-07-31T11:21:23Z</time>
      </trkpt>
      <trkpt lat="42.42817" lon="0.06851">
        <ele>659.1</ele>
        <time>2016-07-31T11:21:24Z</time>
      </trkpt>
      <trkpt lat="42.42819" lon="0.06847">
        <ele>659.5</ele>
        <time>2016-07-31T11:21:25Z</time>
      </trkpt>
      <trkpt lat="42.42821" lon="0.06844">
        <ele>659.9</ele>
        <time>2016-07-31T11:21:26Z</time>
      </trkpt>
      <trkpt lat="42.42823" lon="0.0684">
        <ele>660.2</ele>
        <time>2016-07-31T11:21:27Z</time>
      </trkpt>
      <trkpt lat="42.42826" lon="0.06837">
        <ele>660.4</ele>
        <time>2016-07-31T11:21:28Z</time>
      </trkpt>
      <trkpt lat="42.4283" lon="0.06834">
        <ele>660.3</ele>
        <time>2016-07-31T11:21:29Z</time>
      </trkpt>
      <trkpt lat="42.42833" lon="0.06831">
        <ele>660.3</ele>
        <time>2016-07-31T11:21:30Z</time>
      </trkpt>
      <trkpt lat="42.42836" lon="0.06828">
        <ele>660.3</ele>
        <time>2016-07-31T11:21:31Z</time>
      </trkpt>
      <trkpt lat="42.42839" lon="0.06824">
        <ele>660.5</ele>
        <time>2016-07-31T11:21:32Z</time>
      </trkpt>
      <trkpt lat="42.42841" lon="0.06819">
        <ele>660.9</ele>
        <time>2016-07-31T11:21:33Z</time>
      </trkpt>
      <trkpt lat="42.42843" lon="0.06816">
        <ele>661.3</ele>
        <time>2016-07-31T11:21:34Z</time>
      </trkpt>
      <trkpt lat="42.42844" lon="0.06813">
        <ele>661.6</ele>
        <time>2016-07-31T11:21:35Z</time>
      </trkpt>
      <trkpt lat="42.42846" lon="0.06809">
        <ele>661.8</ele>
        <time>2016-07-31T11:21:36Z</time>
      </trkpt>
      <trkpt lat="42.42848" lon="0.06806">
        <ele>661.8</ele>
        <time>2016-07-31T11:21:37Z</time>
      </trkpt>
      <trkpt lat="42.42851" lon="0.06803">
        <ele>661.8</ele>
        <time>2016-07-31T11:21:38Z</time>
      </trkpt>
      <trkpt lat="42.42853" lon="0.06801">
        <ele>661.9</ele>
        <time>2016-07-31T11:21:39Z</time>
      </trkpt>
      <trkpt lat="42.42856" lon="0.06794">
        <ele>662</ele>
        <time>2016-07-31T11:21:41Z</time>
      </trkpt>
      <trkpt lat="42.42859" lon="0.06791">
        <ele>661.9</ele>
        <time>2016-07-31T11:21:42Z</time>
      </trkpt>
      <trkpt lat="42.42862" lon="0.06788">
        <ele>661.4</ele>
        <time>2016-07-31T11:21:43Z</time>
      </trkpt>
      <trkpt lat="42.42864" lon="0.06785">
        <ele>661.1</ele>
        <time>2016-07-31T11:21:44Z</time>
      </trkpt>
      <trkpt lat="42.42866" lon="0.0678">
        <ele>660.8</ele>
        <time>2016-07-31T11:21:45Z</time>
      </trkpt>
      <trkpt lat="42.42868" lon="0.06775">
        <ele>660.7</ele>
        <time>2016-07-31T11:21:46Z</time>
      </trkpt>
      <trkpt lat="42.42869" lon="0.0677">
        <ele>660.7</ele>
        <time>2016-07-31T11:21:47Z</time>
      </trkpt>
      <trkpt lat="42.42869" lon="0.06765">
        <ele>660.8</ele>
        <time>2016-07-31T11:21:48Z</time>
      </trkpt>
      <trkpt lat="42.4287" lon="0.06761">
        <ele>660.9</ele>
        <time>2016-07-31T11:21:49Z</time>
      </trkpt>
      <trkpt lat="42.42871" lon="0.06757">
        <ele>660.9</ele>
        <time>2016-07-31T11:21:50Z</time>
      </trkpt>
      <trkpt lat="42.42872" lon="0.06752">
        <ele>660.7</ele>
        <time>2016-07-31T11:21:51Z</time>
      </trkpt>
      <trkpt lat="42.42875" lon="0.06748">
        <ele>660.3</ele>
        <time>2016-07-31T11:21:52Z</time>
      </trkpt>
      <trkpt lat="42.42877" lon="0.06744">
        <ele>660</ele>
        <time>2016-07-31T11:21:53Z</time>
      </trkpt>
      <trkpt lat="42.42878" lon="0.0674">
        <ele>659.9</ele>
        <time>2016-07-31T11:21:54Z</time>
      </trkpt>
      <trkpt lat="42.4288" lon="0.06736">
        <ele>659.9</ele>
        <time>2016-07-31T11:21:55Z</time>
      </trkpt>
      <trkpt lat="42.42881" lon="0.06731">
        <ele>659.9</ele>
        <time>2016-07-31T11:21:56Z</time>
      </trkpt>
      <trkpt lat="42.42882" lon="0.06726">
        <ele>659.9</ele>
        <time>2016-07-31T11:21:57Z</time>
      </trkpt>
      <trkpt lat="42.42883" lon="0.06722">
        <ele>660</ele>
        <time>2016-07-31T11:21:58Z</time>
      </trkpt>
      <trkpt lat="42.42883" lon="0.06717">
        <ele>660</ele>
        <time>2016-07-31T11:21:59Z</time>
      </trkpt>
      <trkpt lat="42.42883" lon="0.06714">
        <ele>660.2</ele>
        <time>2016-07-31T11:22:00Z</time>
      </trkpt>
      <trkpt lat="42.42883" lon="0.0671">
        <ele>660.3</ele>
        <time>2016-07-31T11:22:01Z</time>
      </trkpt>
      <trkpt lat="42.42882" lon="0.06704">
        <ele>659.9</ele>
        <time>2016-07-31T11:22:03Z</time>
      </trkpt>
      <trkpt lat="42.42881" lon="0.06698">
        <ele>659.3</ele>
        <time>2016-07-31T11:22:05Z</time>
      </trkpt>
      <trkpt lat="42.42879" lon="0.06693">
        <ele>658.7</ele>
        <time>2016-07-31T11:22:07Z</time>
      </trkpt>
      <trkpt lat="42.42877" lon="0.06686">
        <ele>658</ele>
        <time>2016-07-31T11:22:09Z</time>
      </trkpt>
      <trkpt lat="42.42876" lon="0.06683">
        <ele>657.7</ele>
        <time>2016-07-31T11:22:10Z</time>
      </trkpt>
      <trkpt lat="42.42873" lon="0.06678">
        <ele>657.9</ele>
        <time>2016-07-31T11:22:12Z</time>
      </trkpt>
      <trkpt lat="42.4287" lon="0.06673">
        <ele>658.6</ele>
        <time>2016-07-31T11:22:14Z</time>
      </trkpt>
      <trkpt lat="42.42867" lon="0.06667">
        <ele>658.7</ele>
        <time>2016-07-31T11:22:16Z</time>
      </trkpt>
      <trkpt lat="42.42866" lon="0.06663">
        <ele>658.8</ele>
        <time>2016-07-31T11:22:17Z</time>
      </trkpt>
      <trkpt lat="42.42864" lon="0.06659">
        <ele>659.1</ele>
        <time>2016-07-31T11:22:18Z</time>
      </trkpt>
      <trkpt lat="42.42862" lon="0.06654">
        <ele>659.6</ele>
        <time>2016-07-31T11:22:19Z</time>
      </trkpt>
      <trkpt lat="42.4286" lon="0.06651">
        <ele>660.1</ele>
        <time>2016-07-31T11:22:20Z</time>
      </trkpt>
      <trkpt lat="42.42858" lon="0.06647">
        <ele>661</ele>
        <time>2016-07-31T11:22:22Z</time>
      </trkpt>
      <trkpt lat="42.42856" lon="0.06644">
        <ele>661.9</ele>
        <time>2016-07-31T11:22:24Z</time>
      </trkpt>
      <trkpt lat="42.42854" lon="0.06641">
        <ele>662.3</ele>
        <time>2016-07-31T11:22:29Z</time>
      </trkpt>
      <trkpt lat="42.42854" lon="0.06637">
        <ele>661.7</ele>
        <time>2016-07-31T11:22:44Z</time>
      </trkpt>
      <trkpt lat="42.42856" lon="0.06634">
        <ele>660.3</ele>
        <time>2016-07-31T11:22:55Z</time>
      </trkpt>
      <trkpt lat="42.42859" lon="0.06632">
        <ele>658.4</ele>
        <time>2016-07-31T11:23:05Z</time>
      </trkpt>
      <trkpt lat="42.4286" lon="0.06628">
        <ele>657.2</ele>
        <time>2016-07-31T11:23:12Z</time>
      </trkpt>
      <trkpt lat="42.42862" lon="0.06624">
        <ele>655.9</ele>
        <time>2016-07-31T11:23:23Z</time>
      </trkpt>
      <trkpt lat="42.42862" lon="0.0662">
        <ele>655.3</ele>
        <time>2016-07-31T11:23:27Z</time>
      </trkpt>
      <trkpt lat="42.42864" lon="0.0662">
        <ele>653.6</ele>
        <time>2016-07-31T11:23:33Z</time>
      </trkpt>
      <trkpt lat="42.42867" lon="0.06623">
        <ele>652.6</ele>
        <time>2016-07-31T11:23:36Z</time>
      </trkpt>
      <trkpt lat="42.42869" lon="0.06626">
        <ele>651.9</ele>
        <time>2016-07-31T11:23:38Z</time>
      </trkpt>
      <trkpt lat="42.42871" lon="0.06631">
        <ele>651.4</ele>
        <time>2016-07-31T11:23:41Z</time>
      </trkpt>
      <trkpt lat="42.42874" lon="0.06628">
        <ele>649.3</ele>
        <time>2016-07-31T11:23:45Z</time>
      </trkpt>
      <trkpt lat="42.42874" lon="0.06624">
        <ele>648.2</ele>
        <time>2016-07-31T11:23:47Z</time>
      </trkpt>
      <trkpt lat="42.42872" lon="0.06617">
        <ele>648.4</ele>
        <time>2016-07-31T11:23:49Z</time>
      </trkpt>
      <trkpt lat="42.42871" lon="0.06613">
        <ele>648.4</ele>
        <time>2016-07-31T11:23:50Z</time>
      </trkpt>
      <trkpt lat="42.42869" lon="0.06608">
        <ele>649.1</ele>
        <time>2016-07-31T11:23:52Z</time>
      </trkpt>
      <trkpt lat="42.42866" lon="0.06604">
        <ele>650.5</ele>
        <time>2016-07-31T11:23:54Z</time>
      </trkpt>
      <trkpt lat="42.42863" lon="0.06602">
        <ele>651.5</ele>
        <time>2016-07-31T11:23:55Z</time>
      </trkpt>
      <trkpt lat="42.42861" lon="0.066">
        <ele>652.5</ele>
        <time>2016-07-31T11:23:56Z</time>
      </trkpt>
      <trkpt lat="42.42858" lon="0.06596">
        <ele>653.7</ele>
        <time>2016-07-31T11:23:58Z</time>
      </trkpt>
      <trkpt lat="42.42855" lon="0.0659">
        <ele>654.7</ele>
        <time>2016-07-31T11:24:00Z</time>
      </trkpt>
      <trkpt lat="42.42851" lon="0.06586">
        <ele>655.8</ele>
        <time>2016-07-31T11:24:02Z</time>
      </trkpt>
      <trkpt lat="42.42849" lon="0.06583">
        <ele>656.7</ele>
        <time>2016-07-31T11:24:08Z</time>
      </trkpt>
      <trkpt lat="42.42847" lon="0.06579">
        <ele>656.9</ele>
        <time>2016-07-31T11:24:13Z</time>
      </trkpt>
      <trkpt lat="42.42846" lon="0.06576">
        <ele>657.2</ele>
        <time>2016-07-31T11:24:17Z</time>
      </trkpt>
      <trkpt lat="42.42844" lon="0.06573">
        <ele>657.7</ele>
        <time>2016-07-31T11:24:21Z</time>
      </trkpt>
      <trkpt lat="42.42841" lon="0.06571">
        <ele>658.8</ele>
        <time>2016-07-31T11:24:25Z</time>
      </trkpt>
      <trkpt lat="42.42839" lon="0.06568">
        <ele>659.5</ele>
        <time>2016-07-31T11:24:29Z</time>
      </trkpt>
      <trkpt lat="42.42836" lon="0.06565">
        <ele>660.7</ele>
        <time>2016-07-31T11:24:33Z</time>
      </trkpt>
      <trkpt lat="42.42835" lon="0.06562">
        <ele>661</ele>
        <time>2016-07-31T11:24:41Z</time>
      </trkpt>
      <trkpt lat="42.42833" lon="0.06559">
        <ele>661</ele>
        <time>2016-07-31T11:24:44Z</time>
      </trkpt>
      <trkpt lat="42.42831" lon="0.06554">
        <ele>661.6</ele>
        <time>2016-07-31T11:24:47Z</time>
      </trkpt>
      <trkpt lat="42.42829" lon="0.06552">
        <ele>662.2</ele>
        <time>2016-07-31T11:24:50Z</time>
      </trkpt>
      <trkpt lat="42.42827" lon="0.06549">
        <ele>663</ele>
        <time>2016-07-31T11:24:56Z</time>
      </trkpt>
      <trkpt lat="42.42824" lon="0.06547">
        <ele>663.9</ele>
        <time>2016-07-31T11:24:59Z</time>
      </trkpt>
      <trkpt lat="42.42822" lon="0.06546">
        <ele>664.9</ele>
        <time>2016-07-31T11:25:02Z</time>
      </trkpt>
      <trkpt lat="42.42819" lon="0.06543">
        <ele>665.8</ele>
        <time>2016-07-31T11:25:05Z</time>
      </trkpt>
      <trkpt lat="42.42817" lon="0.0654">
        <ele>666.4</ele>
        <time>2016-07-31T11:25:10Z</time>
      </trkpt>
      <trkpt lat="42.42815" lon="0.06538">
        <ele>667.1</ele>
        <time>2016-07-31T11:25:15Z</time>
      </trkpt>
      <trkpt lat="42.42812" lon="0.06535">
        <ele>667.8</ele>
        <time>2016-07-31T11:25:19Z</time>
      </trkpt>
      <trkpt lat="42.42809" lon="0.06532">
        <ele>668.7</ele>
        <time>2016-07-31T11:25:23Z</time>
      </trkpt>
      <trkpt lat="42.42807" lon="0.06528">
        <ele>668.6</ele>
        <time>2016-07-31T11:25:27Z</time>
      </trkpt>
      <trkpt lat="42.42807" lon="0.06524">
        <ele>668</ele>
        <time>2016-07-31T11:25:30Z</time>
      </trkpt>
      <trkpt lat="42.42805" lon="0.06521">
        <ele>667.8</ele>
        <time>2016-07-31T11:25:34Z</time>
      </trkpt>
      <trkpt lat="42.42803" lon="0.06518">
        <ele>668.3</ele>
        <time>2016-07-31T11:25:39Z</time>
      </trkpt>
      <trkpt lat="42.42801" lon="0.06516">
        <ele>668.5</ele>
        <time>2016-07-31T11:25:44Z</time>
      </trkpt>
      <trkpt lat="42.428" lon="0.06512">
        <ele>667.9</ele>
        <time>2016-07-31T11:25:48Z</time>
      </trkpt>
      <trkpt lat="42.42799" lon="0.06508">
        <ele>667.3</ele>
        <time>2016-07-31T11:25:51Z</time>
      </trkpt>
      <trkpt lat="42.42798" lon="0.06504">
        <ele>666.4</ele>
        <time>2016-07-31T11:25:54Z</time>
      </trkpt>
      <trkpt lat="42.42798" lon="0.06499">
        <ele>665.5</ele>
        <time>2016-07-31T11:25:57Z</time>
      </trkpt>
      <trkpt lat="42.42798" lon="0.06494">
        <ele>664.1</ele>
        <time>2016-07-31T11:25:59Z</time>
      </trkpt>
      <trkpt lat="42.42798" lon="0.06487">
        <ele>662.3</ele>
        <time>2016-07-31T11:26:01Z</time>
      </trkpt>
      <trkpt lat="42.42799" lon="0.06481">
        <ele>660.2</ele>
        <time>2016-07-31T11:26:03Z</time>
      </trkpt>
      <trkpt lat="42.42799" lon="0.06477">
        <ele>659.1</ele>
        <time>2016-07-31T11:26:04Z</time>
      </trkpt>
      <trkpt lat="42.42799" lon="0.06472">
        <ele>658</ele>
        <time>2016-07-31T11:26:05Z</time>
      </trkpt>
      <trkpt lat="42.42799" lon="0.06468">
        <ele>656.9</ele>
        <time>2016-07-31T11:26:06Z</time>
      </trkpt>
      <trkpt lat="42.42798" lon="0.06464">
        <ele>655.9</ele>
        <time>2016-07-31T11:26:07Z</time>
      </trkpt>
      <trkpt lat="42.42798" lon="0.0646">
        <ele>654.9</ele>
        <time>2016-07-31T11:26:08Z</time>
      </trkpt>
      <trkpt lat="42.42798" lon="0.06456">
        <ele>654.1</ele>
        <time>2016-07-31T11:26:09Z</time>
      </trkpt>
      <trkpt lat="42.42798" lon="0.06452">
        <ele>653.5</ele>
        <time>2016-07-31T11:26:10Z</time>
      </trkpt>
      <trkpt lat="42.42798" lon="0.06445">
        <ele>652.4</ele>
        <time>2016-07-31T11:26:12Z</time>
      </trkpt>
      <trkpt lat="42.42798" lon="0.06441">
        <ele>651.8</ele>
        <time>2016-07-31T11:26:13Z</time>
      </trkpt>
      <trkpt lat="42.42798" lon="0.06437">
        <ele>651.2</ele>
        <time>2016-07-31T11:26:14Z</time>
      </trkpt>
      <trkpt lat="42.42798" lon="0.06433">
        <ele>650.5</ele>
        <time>2016-07-31T11:26:15Z</time>
      </trkpt>
      <trkpt lat="42.42798" lon="0.06429">
        <ele>649.8</ele>
        <time>2016-07-31T11:26:16Z</time>
      </trkpt>
      <trkpt lat="42.42799" lon="0.06425">
        <ele>649</ele>
        <time>2016-07-31T11:26:17Z</time>
      </trkpt>
      <trkpt lat="42.428" lon="0.06421">
        <ele>648.2</ele>
        <time>2016-07-31T11:26:18Z</time>
      </trkpt>
      <trkpt lat="42.428" lon="0.06417">
        <ele>647.5</ele>
        <time>2016-07-31T11:26:19Z</time>
      </trkpt>
      <trkpt lat="42.42801" lon="0.06413">
        <ele>646.8</ele>
        <time>2016-07-31T11:26:20Z</time>
      </trkpt>
      <trkpt lat="42.42802" lon="0.06409">
        <ele>646.1</ele>
        <time>2016-07-31T11:26:21Z</time>
      </trkpt>
      <trkpt lat="42.42802" lon="0.06405">
        <ele>645.4</ele>
        <time>2016-07-31T11:26:22Z</time>
      </trkpt>
      <trkpt lat="42.42803" lon="0.06402">
        <ele>644.8</ele>
        <time>2016-07-31T11:26:23Z</time>
      </trkpt>
      <trkpt lat="42.42803" lon="0.06398">
        <ele>644.2</ele>
        <time>2016-07-31T11:26:24Z</time>
      </trkpt>
      <trkpt lat="42.42804" lon="0.06394">
        <ele>643.6</ele>
        <time>2016-07-31T11:26:25Z</time>
      </trkpt>
      <trkpt lat="42.42804" lon="0.0639">
        <ele>643</ele>
        <time>2016-07-31T11:26:26Z</time>
      </trkpt>
      <trkpt lat="42.42803" lon="0.06386">
        <ele>642.4</ele>
        <time>2016-07-31T11:26:27Z</time>
      </trkpt>
      <trkpt lat="42.42803" lon="0.06382">
        <ele>641.8</ele>
        <time>2016-07-31T11:26:28Z</time>
      </trkpt>
      <trkpt lat="42.42802" lon="0.06378">
        <ele>641.2</ele>
        <time>2016-07-31T11:26:29Z</time>
      </trkpt>
      <trkpt lat="42.42802" lon="0.06374">
        <ele>640.7</ele>
        <time>2016-07-31T11:26:30Z</time>
      </trkpt>
      <trkpt lat="42.42802" lon="0.06369">
        <ele>640.6</ele>
        <time>2016-07-31T11:26:31Z</time>
      </trkpt>
      <trkpt lat="42.42803" lon="0.06365">
        <ele>640.4</ele>
        <time>2016-07-31T11:26:32Z</time>
      </trkpt>
      <trkpt lat="42.42803" lon="0.06361">
        <ele>640.3</ele>
        <time>2016-07-31T11:26:33Z</time>
      </trkpt>
      <trkpt lat="42.42803" lon="0.06356">
        <ele>640.2</ele>
        <time>2016-07-31T11:26:34Z</time>
      </trkpt>
      <trkpt lat="42.42804" lon="0.06352">
        <ele>640</ele>
        <time>2016-07-31T11:26:35Z</time>
      </trkpt>
      <trkpt lat="42.42804" lon="0.06348">
        <ele>639.9</ele>
        <time>2016-07-31T11:26:36Z</time>
      </trkpt>
      <trkpt lat="42.42804" lon="0.06343">
        <ele>639.8</ele>
        <time>2016-07-31T11:26:37Z</time>
      </trkpt>
      <trkpt lat="42.42803" lon="0.0634">
        <ele>639.7</ele>
        <time>2016-07-31T11:26:38Z</time>
      </trkpt>
      <trkpt lat="42.42802" lon="0.06336">
        <ele>639.6</ele>
        <time>2016-07-31T11:26:39Z</time>
      </trkpt>
      <trkpt lat="42.42801" lon="0.06333">
        <ele>639.5</ele>
        <time>2016-07-31T11:26:40Z</time>
      </trkpt>
      <trkpt lat="42.428" lon="0.06329">
        <ele>639.4</ele>
        <time>2016-07-31T11:26:41Z</time>
      </trkpt>
      <trkpt lat="42.42797" lon="0.06324">
        <ele>639.2</ele>
        <time>2016-07-31T11:26:43Z</time>
      </trkpt>
      <trkpt lat="42.42794" lon="0.0632">
        <ele>639</ele>
        <time>2016-07-31T11:26:45Z</time>
      </trkpt>
      <trkpt lat="42.42793" lon="0.06314">
        <ele>638.8</ele>
        <time>2016-07-31T11:26:47Z</time>
      </trkpt>
      <trkpt lat="42.42793" lon="0.0631">
        <ele>638.7</ele>
        <time>2016-07-31T11:26:48Z</time>
      </trkpt>
      <trkpt lat="42.42794" lon="0.06306">
        <ele>638.6</ele>
        <time>2016-07-31T11:26:49Z</time>
      </trkpt>
      <trkpt lat="42.42794" lon="0.06302">
        <ele>638.4</ele>
        <time>2016-07-31T11:26:50Z</time>
      </trkpt>
      <trkpt lat="42.42795" lon="0.06299">
        <ele>638.3</ele>
        <time>2016-07-31T11:26:51Z</time>
      </trkpt>
      <trkpt lat="42.42796" lon="0.06295">
        <ele>638.2</ele>
        <time>2016-07-31T11:26:52Z</time>
      </trkpt>
      <trkpt lat="42.42798" lon="0.0629">
        <ele>638.2</ele>
        <time>2016-07-31T11:26:54Z</time>
      </trkpt>
      <trkpt lat="42.428" lon="0.06284">
        <ele>638.4</ele>
        <time>2016-07-31T11:26:56Z</time>
      </trkpt>
      <trkpt lat="42.42802" lon="0.06277">
        <ele>638.6</ele>
        <time>2016-07-31T11:26:58Z</time>
      </trkpt>
      <trkpt lat="42.42802" lon="0.06273">
        <ele>638.7</ele>
        <time>2016-07-31T11:26:59Z</time>
      </trkpt>
      <trkpt lat="42.42803" lon="0.0627">
        <ele>638.8</ele>
        <time>2016-07-31T11:27:00Z</time>
      </trkpt>
      <trkpt lat="42.42804" lon="0.06266">
        <ele>639</ele>
        <time>2016-07-31T11:27:01Z</time>
      </trkpt>
      <trkpt lat="42.42805" lon="0.06262">
        <ele>639.1</ele>
        <time>2016-07-31T11:27:02Z</time>
      </trkpt>
      <trkpt lat="42.42805" lon="0.06259">
        <ele>639.2</ele>
        <time>2016-07-31T11:27:03Z</time>
      </trkpt>
      <trkpt lat="42.42805" lon="0.06255">
        <ele>639.3</ele>
        <time>2016-07-31T11:27:04Z</time>
      </trkpt>
      <trkpt lat="42.42805" lon="0.06251">
        <ele>639.4</ele>
        <time>2016-07-31T11:27:05Z</time>
      </trkpt>
      <trkpt lat="42.42804" lon="0.06247">
        <ele>639.5</ele>
        <time>2016-07-31T11:27:06Z</time>
      </trkpt>
      <trkpt lat="42.42803" lon="0.06243">
        <ele>639.5</ele>
        <time>2016-07-31T11:27:07Z</time>
      </trkpt>
      <trkpt lat="42.42802" lon="0.06239">
        <ele>639.5</ele>
        <time>2016-07-31T11:27:08Z</time>
      </trkpt>
      <trkpt lat="42.42802" lon="0.06234">
        <ele>639.6</ele>
        <time>2016-07-31T11:27:09Z</time>
      </trkpt>
      <trkpt lat="42.42801" lon="0.0623">
        <ele>639.7</ele>
        <time>2016-07-31T11:27:10Z</time>
      </trkpt>
      <trkpt lat="42.42801" lon="0.06225">
        <ele>639.8</ele>
        <time>2016-07-31T11:27:11Z</time>
      </trkpt>
      <trkpt lat="42.42802" lon="0.0622">
        <ele>640</ele>
        <time>2016-07-31T11:27:12Z</time>
      </trkpt>
      <trkpt lat="42.42803" lon="0.06215">
        <ele>640.2</ele>
        <time>2016-07-31T11:27:13Z</time>
      </trkpt>
      <trkpt lat="42.42804" lon="0.0621">
        <ele>640.4</ele>
        <time>2016-07-31T11:27:14Z</time>
      </trkpt>
      <trkpt lat="42.42804" lon="0.06206">
        <ele>640.9</ele>
        <time>2016-07-31T11:27:15Z</time>
      </trkpt>
      <trkpt lat="42.42805" lon="0.06201">
        <ele>641.6</ele>
        <time>2016-07-31T11:27:16Z</time>
      </trkpt>
      <trkpt lat="42.42806" lon="0.06196">
        <ele>642.5</ele>
        <time>2016-07-31T11:27:17Z</time>
      </trkpt>
      <trkpt lat="42.42808" lon="0.06193">
        <ele>643.2</ele>
        <time>2016-07-31T11:27:18Z</time>
      </trkpt>
      <trkpt lat="42.4281" lon="0.0619">
        <ele>643.8</ele>
        <time>2016-07-31T11:27:19Z</time>
      </trkpt>
      <trkpt lat="42.42813" lon="0.06189">
        <ele>644.3</ele>
        <time>2016-07-31T11:27:20Z</time>
      </trkpt>
      <trkpt lat="42.42817" lon="0.06189">
        <ele>644.7</ele>
        <time>2016-07-31T11:27:21Z</time>
      </trkpt>
      <trkpt lat="42.42821" lon="0.06192">
        <ele>644.9</ele>
        <time>2016-07-31T11:27:22Z</time>
      </trkpt>
      <trkpt lat="42.42826" lon="0.06195">
        <ele>645</ele>
        <time>2016-07-31T11:27:23Z</time>
      </trkpt>
      <trkpt lat="42.4283" lon="0.06198">
        <ele>645</ele>
        <time>2016-07-31T11:27:24Z</time>
      </trkpt>
      <trkpt lat="42.42835" lon="0.06202">
        <ele>645.1</ele>
        <time>2016-07-31T11:27:25Z</time>
      </trkpt>
      <trkpt lat="42.42839" lon="0.06205">
        <ele>645.1</ele>
        <time>2016-07-31T11:27:26Z</time>
      </trkpt>
      <trkpt lat="42.42843" lon="0.06209">
        <ele>645.2</ele>
        <time>2016-07-31T11:27:27Z</time>
      </trkpt>
      <trkpt lat="42.42848" lon="0.06212">
        <ele>645.4</ele>
        <time>2016-07-31T11:27:28Z</time>
      </trkpt>
      <trkpt lat="42.42852" lon="0.06215">
        <ele>645.6</ele>
        <time>2016-07-31T11:27:29Z</time>
      </trkpt>
      <trkpt lat="42.42855" lon="0.06218">
        <ele>645.8</ele>
        <time>2016-07-31T11:27:30Z</time>
      </trkpt>
      <trkpt lat="42.42859" lon="0.06221">
        <ele>645.9</ele>
        <time>2016-07-31T11:27:31Z</time>
      </trkpt>
      <trkpt lat="42.42862" lon="0.06224">
        <ele>646</ele>
        <time>2016-07-31T11:27:32Z</time>
      </trkpt>
      <trkpt lat="42.42866" lon="0.06227">
        <ele>646.1</ele>
        <time>2016-07-31T11:27:33Z</time>
      </trkpt>
      <trkpt lat="42.42869" lon="0.0623">
        <ele>646.1</ele>
        <time>2016-07-31T11:27:34Z</time>
      </trkpt>
      <trkpt lat="42.42871" lon="0.06233">
        <ele>646</ele>
        <time>2016-07-31T11:27:35Z</time>
      </trkpt>
      <trkpt lat="42.42873" lon="0.06236">
        <ele>645.8</ele>
        <time>2016-07-31T11:27:36Z</time>
      </trkpt>
      <trkpt lat="42.42874" lon="0.0624">
        <ele>645.6</ele>
        <time>2016-07-31T11:27:37Z</time>
      </trkpt>
      <trkpt lat="42.42877" lon="0.06246">
        <ele>645.1</ele>
        <time>2016-07-31T11:27:39Z</time>
      </trkpt>
      <trkpt lat="42.42878" lon="0.06252">
        <ele>644.6</ele>
        <time>2016-07-31T11:27:41Z</time>
      </trkpt>
      <trkpt lat="42.4288" lon="0.06257">
        <ele>644.1</ele>
        <time>2016-07-31T11:27:43Z</time>
      </trkpt>
      <trkpt lat="42.42881" lon="0.06263">
        <ele>643.6</ele>
        <time>2016-07-31T11:27:45Z</time>
      </trkpt>
      <trkpt lat="42.42881" lon="0.06268">
        <ele>643.1</ele>
        <time>2016-07-31T11:27:47Z</time>
      </trkpt>
      <trkpt lat="42.42882" lon="0.06274">
        <ele>642.6</ele>
        <time>2016-07-31T11:27:49Z</time>
      </trkpt>
      <trkpt lat="42.42882" lon="0.06279">
        <ele>642</ele>
        <time>2016-07-31T11:27:51Z</time>
      </trkpt>
      <trkpt lat="42.42881" lon="0.06284">
        <ele>641.5</ele>
        <time>2016-07-31T11:27:53Z</time>
      </trkpt>
      <trkpt lat="42.42881" lon="0.0629">
        <ele>640.9</ele>
        <time>2016-07-31T11:27:55Z</time>
      </trkpt>
      <trkpt lat="42.42881" lon="0.06295">
        <ele>640.7</ele>
        <time>2016-07-31T11:27:57Z</time>
      </trkpt>
      <trkpt lat="42.4288" lon="0.063">
        <ele>640.6</ele>
        <time>2016-07-31T11:27:59Z</time>
      </trkpt>
      <trkpt lat="42.4288" lon="0.06305">
        <ele>640.5</ele>
        <time>2016-07-31T11:28:01Z</time>
      </trkpt>
      <trkpt lat="42.42881" lon="0.0631">
        <ele>640.6</ele>
        <time>2016-07-31T11:28:03Z</time>
      </trkpt>
      <trkpt lat="42.4288" lon="0.06315">
        <ele>640.4</ele>
        <time>2016-07-31T11:28:05Z</time>
      </trkpt>
      <trkpt lat="42.42879" lon="0.0632">
        <ele>640.4</ele>
        <time>2016-07-31T11:28:07Z</time>
      </trkpt>
      <trkpt lat="42.4288" lon="0.06324">
        <ele>640.4</ele>
        <time>2016-07-31T11:28:09Z</time>
      </trkpt>
      <trkpt lat="42.4288" lon="0.06329">
        <ele>640.4</ele>
        <time>2016-07-31T11:28:11Z</time>
      </trkpt>
      <trkpt lat="42.4288" lon="0.06334">
        <ele>640.4</ele>
        <time>2016-07-31T11:28:13Z</time>
      </trkpt>
      <trkpt lat="42.4288" lon="0.06339">
        <ele>640.3</ele>
        <time>2016-07-31T11:28:15Z</time>
      </trkpt>
      <trkpt lat="42.4288" lon="0.06344">
        <ele>640.4</ele>
        <time>2016-07-31T11:28:17Z</time>
      </trkpt>
      <trkpt lat="42.4288" lon="0.0635">
        <ele>640.5</ele>
        <time>2016-07-31T11:28:19Z</time>
      </trkpt>
      <trkpt lat="42.42881" lon="0.06355">
        <ele>640.7</ele>
        <time>2016-07-31T11:28:21Z</time>
      </trkpt>
      <trkpt lat="42.42883" lon="0.06359">
        <ele>641.1</ele>
        <time>2016-07-31T11:28:23Z</time>
      </trkpt>
      <trkpt lat="42.42885" lon="0.06364">
        <ele>641.5</ele>
        <time>2016-07-31T11:28:25Z</time>
      </trkpt>
      <trkpt lat="42.42886" lon="0.06369">
        <ele>641.9</ele>
        <time>2016-07-31T11:28:27Z</time>
      </trkpt>
      <trkpt lat="42.42888" lon="0.06374">
        <ele>642.3</ele>
        <time>2016-07-31T11:28:29Z</time>
      </trkpt>
      <trkpt lat="42.42889" lon="0.06379">
        <ele>642.6</ele>
        <time>2016-07-31T11:28:31Z</time>
      </trkpt>
      <trkpt lat="42.42891" lon="0.06383">
        <ele>643</ele>
        <time>2016-07-31T11:28:33Z</time>
      </trkpt>
      <trkpt lat="42.42893" lon="0.06386">
        <ele>643.6</ele>
        <time>2016-07-31T11:28:35Z</time>
      </trkpt>
      <trkpt lat="42.42896" lon="0.0639">
        <ele>644.3</ele>
        <time>2016-07-31T11:28:37Z</time>
      </trkpt>
      <trkpt lat="42.42899" lon="0.06393">
        <ele>645.1</ele>
        <time>2016-07-31T11:28:39Z</time>
      </trkpt>
      <trkpt lat="42.42902" lon="0.06397">
        <ele>645.8</ele>
        <time>2016-07-31T11:28:41Z</time>
      </trkpt>
      <trkpt lat="42.42905" lon="0.06401">
        <ele>646.5</ele>
        <time>2016-07-31T11:28:43Z</time>
      </trkpt>
      <trkpt lat="42.42907" lon="0.06404">
        <ele>647.1</ele>
        <time>2016-07-31T11:28:45Z</time>
      </trkpt>
      <trkpt lat="42.42909" lon="0.06407">
        <ele>647.6</ele>
        <time>2016-07-31T11:28:47Z</time>
      </trkpt>
      <trkpt lat="42.42911" lon="0.0641">
        <ele>648.1</ele>
        <time>2016-07-31T11:28:49Z</time>
      </trkpt>
      <trkpt lat="42.42913" lon="0.06414">
        <ele>648.6</ele>
        <time>2016-07-31T11:28:51Z</time>
      </trkpt>
      <trkpt lat="42.42915" lon="0.06419">
        <ele>649.1</ele>
        <time>2016-07-31T11:28:53Z</time>
      </trkpt>
      <trkpt lat="42.42917" lon="0.06423">
        <ele>649.4</ele>
        <time>2016-07-31T11:28:55Z</time>
      </trkpt>
      <trkpt lat="42.42918" lon="0.06427">
        <ele>649.9</ele>
        <time>2016-07-31T11:28:57Z</time>
      </trkpt>
      <trkpt lat="42.4292" lon="0.06431">
        <ele>650.3</ele>
        <time>2016-07-31T11:28:59Z</time>
      </trkpt>
      <trkpt lat="42.42922" lon="0.06435">
        <ele>650.8</ele>
        <time>2016-07-31T11:29:01Z</time>
      </trkpt>
      <trkpt lat="42.42924" lon="0.06439">
        <ele>651.4</ele>
        <time>2016-07-31T11:29:03Z</time>
      </trkpt>
      <trkpt lat="42.42926" lon="0.06443">
        <ele>651.9</ele>
        <time>2016-07-31T11:29:05Z</time>
      </trkpt>
      <trkpt lat="42.42929" lon="0.06446">
        <ele>652.6</ele>
        <time>2016-07-31T11:29:07Z</time>
      </trkpt>
      <trkpt lat="42.42932" lon="0.06449">
        <ele>653.4</ele>
        <time>2016-07-31T11:29:09Z</time>
      </trkpt>
      <trkpt lat="42.42935" lon="0.06451">
        <ele>654.3</ele>
        <time>2016-07-31T11:29:11Z</time>
      </trkpt>
      <trkpt lat="42.42938" lon="0.06454">
        <ele>655.1</ele>
        <time>2016-07-31T11:29:13Z</time>
      </trkpt>
      <trkpt lat="42.42941" lon="0.06456">
        <ele>655.9</ele>
        <time>2016-07-31T11:29:15Z</time>
      </trkpt>
      <trkpt lat="42.42944" lon="0.06458">
        <ele>656.8</ele>
        <time>2016-07-31T11:29:17Z</time>
      </trkpt>
      <trkpt lat="42.42947" lon="0.06461">
        <ele>657.5</ele>
        <time>2016-07-31T11:29:19Z</time>
      </trkpt>
      <trkpt lat="42.4295" lon="0.06462">
        <ele>658.2</ele>
        <time>2016-07-31T11:29:21Z</time>
      </trkpt>
      <trkpt lat="42.42953" lon="0.06464">
        <ele>658.9</ele>
        <time>2016-07-31T11:29:23Z</time>
      </trkpt>
      <trkpt lat="42.42956" lon="0.06464">
        <ele>659.6</ele>
        <time>2016-07-31T11:29:25Z</time>
      </trkpt>
      <trkpt lat="42.42958" lon="0.06466">
        <ele>660.2</ele>
        <time>2016-07-31T11:29:27Z</time>
      </trkpt>
      <trkpt lat="42.42961" lon="0.06468">
        <ele>660.7</ele>
        <time>2016-07-31T11:29:29Z</time>
      </trkpt>
      <trkpt lat="42.42964" lon="0.0647">
        <ele>661.2</ele>
        <time>2016-07-31T11:29:31Z</time>
      </trkpt>
      <trkpt lat="42.42967" lon="0.06472">
        <ele>661.9</ele>
        <time>2016-07-31T11:29:33Z</time>
      </trkpt>
      <trkpt lat="42.4297" lon="0.06474">
        <ele>662.5</ele>
        <time>2016-07-31T11:29:35Z</time>
      </trkpt>
      <trkpt lat="42.42972" lon="0.06477">
        <ele>662.9</ele>
        <time>2016-07-31T11:29:37Z</time>
      </trkpt>
      <trkpt lat="42.42972" lon="0.06482">
        <ele>662.6</ele>
        <time>2016-07-31T11:29:39Z</time>
      </trkpt>
      <trkpt lat="42.42973" lon="0.06487">
        <ele>662.4</ele>
        <time>2016-07-31T11:29:41Z</time>
      </trkpt>
      <trkpt lat="42.42973" lon="0.06492">
        <ele>662.2</ele>
        <time>2016-07-31T11:29:43Z</time>
      </trkpt>
      <trkpt lat="42.42974" lon="0.06497">
        <ele>662</ele>
        <time>2016-07-31T11:29:45Z</time>
      </trkpt>
      <trkpt lat="42.42974" lon="0.06501">
        <ele>661.7</ele>
        <time>2016-07-31T11:29:47Z</time>
      </trkpt>
      <trkpt lat="42.42974" lon="0.06506">
        <ele>661.5</ele>
        <time>2016-07-31T11:29:49Z</time>
      </trkpt>
      <trkpt lat="42.42975" lon="0.06511">
        <ele>661.5</ele>
        <time>2016-07-31T11:29:51Z</time>
      </trkpt>
      <trkpt lat="42.42975" lon="0.06516">
        <ele>661.2</ele>
        <time>2016-07-31T11:29:53Z</time>
      </trkpt>
      <trkpt lat="42.42976" lon="0.06521">
        <ele>661.1</ele>
        <time>2016-07-31T11:29:55Z</time>
      </trkpt>
      <trkpt lat="42.42977" lon="0.06526">
        <ele>661.3</ele>
        <time>2016-07-31T11:29:57Z</time>
      </trkpt>
      <trkpt lat="42.42978" lon="0.06531">
        <ele>661.3</ele>
        <time>2016-07-31T11:29:59Z</time>
      </trkpt>
      <trkpt lat="42.42978" lon="0.06536">
        <ele>661.2</ele>
        <time>2016-07-31T11:30:01Z</time>
      </trkpt>
      <trkpt lat="42.42979" lon="0.06542">
        <ele>661.3</ele>
        <time>2016-07-31T11:30:03Z</time>
      </trkpt>
      <trkpt lat="42.4298" lon="0.06548">
        <ele>661.4</ele>
        <time>2016-07-31T11:30:05Z</time>
      </trkpt>
      <trkpt lat="42.4298" lon="0.06555">
        <ele>661.2</ele>
        <time>2016-07-31T11:30:07Z</time>
      </trkpt>
      <trkpt lat="42.42981" lon="0.06559">
        <ele>661</ele>
        <time>2016-07-31T11:30:08Z</time>
      </trkpt>
      <trkpt lat="42.42981" lon="0.06563">
        <ele>661</ele>
        <time>2016-07-31T11:30:09Z</time>
      </trkpt>
      <trkpt lat="42.42981" lon="0.06567">
        <ele>660.9</ele>
        <time>2016-07-31T11:30:10Z</time>
      </trkpt>
      <trkpt lat="42.42981" lon="0.0657">
        <ele>660.8</ele>
        <time>2016-07-31T11:30:11Z</time>
      </trkpt>
      <trkpt lat="42.42981" lon="0.06574">
        <ele>660.6</ele>
        <time>2016-07-31T11:30:12Z</time>
      </trkpt>
      <trkpt lat="42.42981" lon="0.06578">
        <ele>660.4</ele>
        <time>2016-07-31T11:30:13Z</time>
      </trkpt>
      <trkpt lat="42.42981" lon="0.06585">
        <ele>659.9</ele>
        <time>2016-07-31T11:30:15Z</time>
      </trkpt>
      <trkpt lat="42.42981" lon="0.06589">
        <ele>659.7</ele>
        <time>2016-07-31T11:30:16Z</time>
      </trkpt>
      <trkpt lat="42.4298" lon="0.06596">
        <ele>659.3</ele>
        <time>2016-07-31T11:30:18Z</time>
      </trkpt>
      <trkpt lat="42.42981" lon="0.06603">
        <ele>659</ele>
        <time>2016-07-31T11:30:20Z</time>
      </trkpt>
      <trkpt lat="42.42981" lon="0.0661">
        <ele>658.7</ele>
        <time>2016-07-31T11:30:22Z</time>
      </trkpt>
      <trkpt lat="42.4298" lon="0.06617">
        <ele>658.3</ele>
        <time>2016-07-31T11:30:24Z</time>
      </trkpt>
      <trkpt lat="42.42981" lon="0.06623">
        <ele>658.1</ele>
        <time>2016-07-31T11:30:26Z</time>
      </trkpt>
      <trkpt lat="42.42981" lon="0.0663">
        <ele>658.2</ele>
        <time>2016-07-31T11:30:28Z</time>
      </trkpt>
      <trkpt lat="42.42982" lon="0.06637">
        <ele>658.7</ele>
        <time>2016-07-31T11:30:30Z</time>
      </trkpt>
      <trkpt lat="42.42983" lon="0.06643">
        <ele>659.3</ele>
        <time>2016-07-31T11:30:32Z</time>
      </trkpt>
      <trkpt lat="42.42985" lon="0.06649">
        <ele>660.2</ele>
        <time>2016-07-31T11:30:34Z</time>
      </trkpt>
      <trkpt lat="42.42987" lon="0.06656">
        <ele>660.9</ele>
        <time>2016-07-31T11:30:36Z</time>
      </trkpt>
      <trkpt lat="42.42988" lon="0.06662">
        <ele>661.8</ele>
        <time>2016-07-31T11:30:38Z</time>
      </trkpt>
      <trkpt lat="42.4299" lon="0.06669">
        <ele>662.5</ele>
        <time>2016-07-31T11:30:40Z</time>
      </trkpt>
      <trkpt lat="42.42991" lon="0.06676">
        <ele>663.1</ele>
        <time>2016-07-31T11:30:42Z</time>
      </trkpt>
      <trkpt lat="42.42994" lon="0.06682">
        <ele>664.2</ele>
        <time>2016-07-31T11:30:44Z</time>
      </trkpt>
      <trkpt lat="42.42995" lon="0.06685">
        <ele>664.9</ele>
        <time>2016-07-31T11:30:45Z</time>
      </trkpt>
      <trkpt lat="42.42998" lon="0.06691">
        <ele>666.4</ele>
        <time>2016-07-31T11:30:47Z</time>
      </trkpt>
      <trkpt lat="42.43002" lon="0.06696">
        <ele>668.1</ele>
        <time>2016-07-31T11:30:49Z</time>
      </trkpt>
      <trkpt lat="42.43006" lon="0.067">
        <ele>670</ele>
        <time>2016-07-31T11:30:51Z</time>
      </trkpt>
      <trkpt lat="42.4301" lon="0.06705">
        <ele>671.9</ele>
        <time>2016-07-31T11:30:53Z</time>
      </trkpt>
      <trkpt lat="42.43012" lon="0.06711">
        <ele>673.1</ele>
        <time>2016-07-31T11:30:55Z</time>
      </trkpt>
      <trkpt lat="42.43014" lon="0.06717">
        <ele>674</ele>
        <time>2016-07-31T11:30:57Z</time>
      </trkpt>
      <trkpt lat="42.43016" lon="0.06724">
        <ele>674.7</ele>
        <time>2016-07-31T11:30:59Z</time>
      </trkpt>
      <trkpt lat="42.43017" lon="0.06728">
        <ele>675</ele>
        <time>2016-07-31T11:31:00Z</time>
      </trkpt>
      <trkpt lat="42.43018" lon="0.06731">
        <ele>675.4</ele>
        <time>2016-07-31T11:31:01Z</time>
      </trkpt>
      <trkpt lat="42.43019" lon="0.06735">
        <ele>675.8</ele>
        <time>2016-07-31T11:31:02Z</time>
      </trkpt>
      <trkpt lat="42.4302" lon="0.06738">
        <ele>676.2</ele>
        <time>2016-07-31T11:31:03Z</time>
      </trkpt>
      <trkpt lat="42.43021" lon="0.06743">
        <ele>676.5</ele>
        <time>2016-07-31T11:31:04Z</time>
      </trkpt>
      <trkpt lat="42.43022" lon="0.06747">
        <ele>676.7</ele>
        <time>2016-07-31T11:31:05Z</time>
      </trkpt>
      <trkpt lat="42.43023" lon="0.06751">
        <ele>676.9</ele>
        <time>2016-07-31T11:31:06Z</time>
      </trkpt>
      <trkpt lat="42.43023" lon="0.06756">
        <ele>677</ele>
        <time>2016-07-31T11:31:07Z</time>
      </trkpt>
      <trkpt lat="42.43024" lon="0.06761">
        <ele>677.2</ele>
        <time>2016-07-31T11:31:08Z</time>
      </trkpt>
      <trkpt lat="42.43025" lon="0.06766">
        <ele>677.4</ele>
        <time>2016-07-31T11:31:09Z</time>
      </trkpt>
      <trkpt lat="42.43025" lon="0.06771">
        <ele>677.3</ele>
        <time>2016-07-31T11:31:10Z</time>
      </trkpt>
      <trkpt lat="42.43025" lon="0.06776">
        <ele>677.1</ele>
        <time>2016-07-31T11:31:11Z</time>
      </trkpt>
      <trkpt lat="42.43025" lon="0.06781">
        <ele>676.8</ele>
        <time>2016-07-31T11:31:12Z</time>
      </trkpt>
      <trkpt lat="42.43025" lon="0.06786">
        <ele>676.4</ele>
        <time>2016-07-31T11:31:13Z</time>
      </trkpt>
      <trkpt lat="42.43024" lon="0.06791">
        <ele>676</ele>
        <time>2016-07-31T11:31:14Z</time>
      </trkpt>
      <trkpt lat="42.43023" lon="0.06796">
        <ele>675.6</ele>
        <time>2016-07-31T11:31:15Z</time>
      </trkpt>
      <trkpt lat="42.43022" lon="0.06801">
        <ele>675.2</ele>
        <time>2016-07-31T11:31:16Z</time>
      </trkpt>
      <trkpt lat="42.43021" lon="0.06806">
        <ele>674.7</ele>
        <time>2016-07-31T11:31:17Z</time>
      </trkpt>
      <trkpt lat="42.4302" lon="0.06811">
        <ele>674.2</ele>
        <time>2016-07-31T11:31:18Z</time>
      </trkpt>
      <trkpt lat="42.43019" lon="0.06816">
        <ele>673.7</ele>
        <time>2016-07-31T11:31:19Z</time>
      </trkpt>
      <trkpt lat="42.43018" lon="0.06821">
        <ele>673.2</ele>
        <time>2016-07-31T11:31:20Z</time>
      </trkpt>
      <trkpt lat="42.43017" lon="0.06825">
        <ele>672.7</ele>
        <time>2016-07-31T11:31:21Z</time>
      </trkpt>
      <trkpt lat="42.43016" lon="0.0683">
        <ele>672.2</ele>
        <time>2016-07-31T11:31:22Z</time>
      </trkpt>
      <trkpt lat="42.43015" lon="0.06833">
        <ele>671.7</ele>
        <time>2016-07-31T11:31:23Z</time>
      </trkpt>
      <trkpt lat="42.43014" lon="0.06837">
        <ele>671.2</ele>
        <time>2016-07-31T11:31:24Z</time>
      </trkpt>
      <trkpt lat="42.43012" lon="0.06841">
        <ele>670.7</ele>
        <time>2016-07-31T11:31:25Z</time>
      </trkpt>
      <trkpt lat="42.43011" lon="0.06845">
        <ele>670.2</ele>
        <time>2016-07-31T11:31:26Z</time>
      </trkpt>
      <trkpt lat="42.4301" lon="0.06851">
        <ele>669.4</ele>
        <time>2016-07-31T11:31:28Z</time>
      </trkpt>
      <trkpt lat="42.4301" lon="0.06856">
        <ele>669.7</ele>
        <time>2016-07-31T11:31:30Z</time>
      </trkpt>
      <trkpt lat="42.43014" lon="0.06855">
        <ele>671.3</ele>
        <time>2016-07-31T11:31:32Z</time>
      </trkpt>
      <trkpt lat="42.43017" lon="0.0685">
        <ele>672.8</ele>
        <time>2016-07-31T11:31:34Z</time>
      </trkpt>
      <trkpt lat="42.4302" lon="0.06844">
        <ele>673.9</ele>
        <time>2016-07-31T11:31:36Z</time>
      </trkpt>
      <trkpt lat="42.43021" lon="0.06838">
        <ele>674.7</ele>
        <time>2016-07-31T11:31:38Z</time>
      </trkpt>
      <trkpt lat="42.43023" lon="0.06831">
        <ele>675.4</ele>
        <time>2016-07-31T11:31:40Z</time>
      </trkpt>
      <trkpt lat="42.43025" lon="0.06825">
        <ele>676.2</ele>
        <time>2016-07-31T11:31:42Z</time>
      </trkpt>
      <trkpt lat="42.43027" lon="0.0682">
        <ele>677.1</ele>
        <time>2016-07-31T11:31:44Z</time>
      </trkpt>
      <trkpt lat="42.43029" lon="0.06814">
        <ele>678.1</ele>
        <time>2016-07-31T11:31:46Z</time>
      </trkpt>
      <trkpt lat="42.43032" lon="0.06809">
        <ele>679.4</ele>
        <time>2016-07-31T11:31:48Z</time>
      </trkpt>
      <trkpt lat="42.43036" lon="0.0681">
        <ele>681.2</ele>
        <time>2016-07-31T11:31:50Z</time>
      </trkpt>
      <trkpt lat="42.43037" lon="0.06817">
        <ele>681.6</ele>
        <time>2016-07-31T11:31:52Z</time>
      </trkpt>
      <trkpt lat="42.43036" lon="0.06821">
        <ele>681.2</ele>
        <time>2016-07-31T11:31:53Z</time>
      </trkpt>
      <trkpt lat="42.43034" lon="0.06825">
        <ele>680.5</ele>
        <time>2016-07-31T11:31:54Z</time>
      </trkpt>
      <trkpt lat="42.43032" lon="0.06829">
        <ele>679.8</ele>
        <time>2016-07-31T11:31:55Z</time>
      </trkpt>
      <trkpt lat="42.43031" lon="0.06832">
        <ele>679.1</ele>
        <time>2016-07-31T11:31:56Z</time>
      </trkpt>
      <trkpt lat="42.4303" lon="0.06836">
        <ele>678.6</ele>
        <time>2016-07-31T11:31:57Z</time>
      </trkpt>
      <trkpt lat="42.43029" lon="0.0684">
        <ele>678.2</ele>
        <time>2016-07-31T11:31:58Z</time>
      </trkpt>
      <trkpt lat="42.43028" lon="0.06847">
        <ele>677.7</ele>
        <time>2016-07-31T11:32:00Z</time>
      </trkpt>
      <trkpt lat="42.43027" lon="0.06854">
        <ele>677.4</ele>
        <time>2016-07-31T11:32:02Z</time>
      </trkpt>
      <trkpt lat="42.43028" lon="0.06861">
        <ele>677.5</ele>
        <time>2016-07-31T11:32:04Z</time>
      </trkpt>
      <trkpt lat="42.43028" lon="0.06868">
        <ele>677.9</ele>
        <time>2016-07-31T11:32:06Z</time>
      </trkpt>
      <trkpt lat="42.43029" lon="0.06874">
        <ele>678.3</ele>
        <time>2016-07-31T11:32:08Z</time>
      </trkpt>
      <trkpt lat="42.4303" lon="0.06881">
        <ele>679.2</ele>
        <time>2016-07-31T11:32:10Z</time>
      </trkpt>
      <trkpt lat="42.43031" lon="0.06888">
        <ele>680.2</ele>
        <time>2016-07-31T11:32:12Z</time>
      </trkpt>
      <trkpt lat="42.43032" lon="0.06895">
        <ele>681.1</ele>
        <time>2016-07-31T11:32:14Z</time>
      </trkpt>
      <trkpt lat="42.43032" lon="0.06899">
        <ele>681.6</ele>
        <time>2016-07-31T11:32:15Z</time>
      </trkpt>
      <trkpt lat="42.43033" lon="0.06903">
        <ele>682.1</ele>
        <time>2016-07-31T11:32:16Z</time>
      </trkpt>
      <trkpt lat="42.43033" lon="0.06909">
        <ele>682.9</ele>
        <time>2016-07-31T11:32:18Z</time>
      </trkpt>
      <trkpt lat="42.43033" lon="0.06914">
        <ele>683.4</ele>
        <time>2016-07-31T11:32:20Z</time>
      </trkpt>
      <trkpt lat="42.43034" lon="0.06919">
        <ele>684.1</ele>
        <time>2016-07-31T11:32:22Z</time>
      </trkpt>
      <trkpt lat="42.43037" lon="0.06921">
        <ele>685.6</ele>
        <time>2016-07-31T11:32:24Z</time>
      </trkpt>
      <trkpt lat="42.43041" lon="0.0692">
        <ele>687.2</ele>
        <time>2016-07-31T11:32:26Z</time>
      </trkpt>
      <trkpt lat="42.43044" lon="0.06916">
        <ele>687.9</ele>
        <time>2016-07-31T11:32:28Z</time>
      </trkpt>
      <trkpt lat="42.43045" lon="0.06911">
        <ele>688.1</ele>
        <time>2016-07-31T11:32:30Z</time>
      </trkpt>
      <trkpt lat="42.43046" lon="0.06906">
        <ele>688</ele>
        <time>2016-07-31T11:32:32Z</time>
      </trkpt>
      <trkpt lat="42.43047" lon="0.06901">
        <ele>687.7</ele>
        <time>2016-07-31T11:32:34Z</time>
      </trkpt>
      <trkpt lat="42.43047" lon="0.06895">
        <ele>687.5</ele>
        <time>2016-07-31T11:32:36Z</time>
      </trkpt>
      <trkpt lat="42.43048" lon="0.0689">
        <ele>687.3</ele>
        <time>2016-07-31T11:32:38Z</time>
      </trkpt>
      <trkpt lat="42.43047" lon="0.06885">
        <ele>686.9</ele>
        <time>2016-07-31T11:32:40Z</time>
      </trkpt>
      <trkpt lat="42.43047" lon="0.0688">
        <ele>686.4</ele>
        <time>2016-07-31T11:32:42Z</time>
      </trkpt>
      <trkpt lat="42.43047" lon="0.06875">
        <ele>686</ele>
        <time>2016-07-31T11:32:44Z</time>
      </trkpt>
      <trkpt lat="42.43047" lon="0.0687">
        <ele>686.1</ele>
        <time>2016-07-31T11:32:46Z</time>
      </trkpt>
      <trkpt lat="42.43047" lon="0.06866">
        <ele>686.2</ele>
        <time>2016-07-31T11:32:48Z</time>
      </trkpt>
      <trkpt lat="42.43048" lon="0.0686">
        <ele>686.6</ele>
        <time>2016-07-31T11:32:50Z</time>
      </trkpt>
      <trkpt lat="42.4305" lon="0.06856">
        <ele>687.3</ele>
        <time>2016-07-31T11:32:52Z</time>
      </trkpt>
      <trkpt lat="42.43052" lon="0.06853">
        <ele>688.1</ele>
        <time>2016-07-31T11:32:54Z</time>
      </trkpt>
      <trkpt lat="42.43054" lon="0.06849">
        <ele>688.8</ele>
        <time>2016-07-31T11:32:56Z</time>
      </trkpt>
      <trkpt lat="42.43055" lon="0.06844">
        <ele>689.4</ele>
        <time>2016-07-31T11:32:59Z</time>
      </trkpt>
      <trkpt lat="42.43056" lon="0.0684">
        <ele>689.9</ele>
        <time>2016-07-31T11:33:01Z</time>
      </trkpt>
      <trkpt lat="42.43058" lon="0.06836">
        <ele>690.5</ele>
        <time>2016-07-31T11:33:04Z</time>
      </trkpt>
      <trkpt lat="42.43059" lon="0.06831">
        <ele>691.3</ele>
        <time>2016-07-31T11:33:07Z</time>
      </trkpt>
      <trkpt lat="42.43061" lon="0.06828">
        <ele>692.1</ele>
        <time>2016-07-31T11:33:09Z</time>
      </trkpt>
      <trkpt lat="42.43063" lon="0.06825">
        <ele>692.9</ele>
        <time>2016-07-31T11:33:11Z</time>
      </trkpt>
      <trkpt lat="42.43065" lon="0.06823">
        <ele>693.7</ele>
        <time>2016-07-31T11:33:13Z</time>
      </trkpt>
      <trkpt lat="42.43067" lon="0.06821">
        <ele>694.6</ele>
        <time>2016-07-31T11:33:15Z</time>
      </trkpt>
      <trkpt lat="42.43071" lon="0.06818">
        <ele>696.2</ele>
        <time>2016-07-31T11:33:18Z</time>
      </trkpt>
      <trkpt lat="42.43074" lon="0.06818">
        <ele>697.3</ele>
        <time>2016-07-31T11:33:20Z</time>
      </trkpt>
      <trkpt lat="42.43077" lon="0.0682">
        <ele>698.9</ele>
        <time>2016-07-31T11:33:23Z</time>
      </trkpt>
      <trkpt lat="42.4308" lon="0.06821">
        <ele>699.9</ele>
        <time>2016-07-31T11:33:25Z</time>
      </trkpt>
      <trkpt lat="42.43084" lon="0.06823">
        <ele>701.4</ele>
        <time>2016-07-31T11:33:28Z</time>
      </trkpt>
      <trkpt lat="42.43087" lon="0.06826">
        <ele>702.6</ele>
        <time>2016-07-31T11:33:31Z</time>
      </trkpt>
      <trkpt lat="42.43089" lon="0.06828">
        <ele>703.5</ele>
        <time>2016-07-31T11:33:33Z</time>
      </trkpt>
      <trkpt lat="42.43092" lon="0.06829">
        <ele>704.7</ele>
        <time>2016-07-31T11:33:35Z</time>
      </trkpt>
      <trkpt lat="42.43095" lon="0.06829">
        <ele>705.9</ele>
        <time>2016-07-31T11:33:37Z</time>
      </trkpt>
      <trkpt lat="42.43098" lon="0.06827">
        <ele>707.1</ele>
        <time>2016-07-31T11:33:39Z</time>
      </trkpt>
      <trkpt lat="42.43101" lon="0.06825">
        <ele>708.3</ele>
        <time>2016-07-31T11:33:41Z</time>
      </trkpt>
      <trkpt lat="42.43103" lon="0.06823">
        <ele>709.4</ele>
        <time>2016-07-31T11:33:43Z</time>
      </trkpt>
      <trkpt lat="42.43105" lon="0.0682">
        <ele>710.3</ele>
        <time>2016-07-31T11:33:45Z</time>
      </trkpt>
      <trkpt lat="42.43106" lon="0.06816">
        <ele>710.9</ele>
        <time>2016-07-31T11:33:47Z</time>
      </trkpt>
      <trkpt lat="42.43106" lon="0.06811">
        <ele>711.1</ele>
        <time>2016-07-31T11:33:49Z</time>
      </trkpt>
      <trkpt lat="42.43106" lon="0.06807">
        <ele>711.1</ele>
        <time>2016-07-31T11:33:51Z</time>
      </trkpt>
      <trkpt lat="42.43105" lon="0.06803">
        <ele>711</ele>
        <time>2016-07-31T11:33:53Z</time>
      </trkpt>
      <trkpt lat="42.43104" lon="0.06797">
        <ele>710.5</ele>
        <time>2016-07-31T11:33:55Z</time>
      </trkpt>
      <trkpt lat="42.43102" lon="0.06792">
        <ele>709.9</ele>
        <time>2016-07-31T11:33:57Z</time>
      </trkpt>
      <trkpt lat="42.43102" lon="0.06788">
        <ele>710.4</ele>
        <time>2016-07-31T11:34:07Z</time>
      </trkpt>
      <trkpt lat="42.43105" lon="0.06786">
        <ele>711.6</ele>
        <time>2016-07-31T11:34:11Z</time>
      </trkpt>
      <trkpt lat="42.43107" lon="0.06785">
        <ele>712.9</ele>
        <time>2016-07-31T11:34:17Z</time>
      </trkpt>
      <trkpt lat="42.43108" lon="0.06781">
        <ele>713.4</ele>
        <time>2016-07-31T11:34:24Z</time>
      </trkpt>
      <trkpt lat="42.43109" lon="0.06776">
        <ele>714.3</ele>
        <time>2016-07-31T11:34:28Z</time>
      </trkpt>
      <trkpt lat="42.4311" lon="0.06772">
        <ele>715</ele>
        <time>2016-07-31T11:34:31Z</time>
      </trkpt>
      <trkpt lat="42.4311" lon="0.06768">
        <ele>715.2</ele>
        <time>2016-07-31T11:34:36Z</time>
      </trkpt>
      <trkpt lat="42.4311" lon="0.06763">
        <ele>715.5</ele>
        <time>2016-07-31T11:34:39Z</time>
      </trkpt>
      <trkpt lat="42.4311" lon="0.06759">
        <ele>716</ele>
        <time>2016-07-31T11:34:43Z</time>
      </trkpt>
      <trkpt lat="42.43109" lon="0.06755">
        <ele>715.9</ele>
        <time>2016-07-31T11:34:47Z</time>
      </trkpt>
      <trkpt lat="42.43107" lon="0.06752">
        <ele>715.4</ele>
        <time>2016-07-31T11:34:50Z</time>
      </trkpt>
      <trkpt lat="42.43106" lon="0.06748">
        <ele>715.1</ele>
        <time>2016-07-31T11:34:54Z</time>
      </trkpt>
      <trkpt lat="42.43106" lon="0.06743">
        <ele>715.5</ele>
        <time>2016-07-31T11:34:58Z</time>
      </trkpt>
      <trkpt lat="42.43106" lon="0.06739">
        <ele>715.8</ele>
        <time>2016-07-31T11:35:01Z</time>
      </trkpt>
      <trkpt lat="42.43107" lon="0.06735">
        <ele>716.3</ele>
        <time>2016-07-31T11:35:04Z</time>
      </trkpt>
      <trkpt lat="42.43106" lon="0.06731">
        <ele>716.5</ele>
        <time>2016-07-31T11:35:07Z</time>
      </trkpt>
      <trkpt lat="42.43105" lon="0.06727">
        <ele>716.1</ele>
        <time>2016-07-31T11:35:13Z</time>
      </trkpt>
      <trkpt lat="42.43103" lon="0.06722">
        <ele>715.7</ele>
        <time>2016-07-31T11:35:16Z</time>
      </trkpt>
      <trkpt lat="42.43101" lon="0.06719">
        <ele>715.2</ele>
        <time>2016-07-31T11:35:19Z</time>
      </trkpt>
      <trkpt lat="42.431" lon="0.06715">
        <ele>714.6</ele>
        <time>2016-07-31T11:35:22Z</time>
      </trkpt>
      <trkpt lat="42.43099" lon="0.06711">
        <ele>714.4</ele>
        <time>2016-07-31T11:35:25Z</time>
      </trkpt>
      <trkpt lat="42.43098" lon="0.06707">
        <ele>714.6</ele>
        <time>2016-07-31T11:35:28Z</time>
      </trkpt>
      <trkpt lat="42.43097" lon="0.06703">
        <ele>714.4</ele>
        <time>2016-07-31T11:35:31Z</time>
      </trkpt>
      <trkpt lat="42.43096" lon="0.06698">
        <ele>714.7</ele>
        <time>2016-07-31T11:35:34Z</time>
      </trkpt>
      <trkpt lat="42.43098" lon="0.06695">
        <ele>715.8</ele>
        <time>2016-07-31T11:35:36Z</time>
      </trkpt>
      <trkpt lat="42.43099" lon="0.06691">
        <ele>716.9</ele>
        <time>2016-07-31T11:35:39Z</time>
      </trkpt>
      <trkpt lat="42.43099" lon="0.06687">
        <ele>717.6</ele>
        <time>2016-07-31T11:35:42Z</time>
      </trkpt>
      <trkpt lat="42.431" lon="0.06681">
        <ele>718.6</ele>
        <time>2016-07-31T11:35:44Z</time>
      </trkpt>
      <trkpt lat="42.431" lon="0.06676">
        <ele>719</ele>
        <time>2016-07-31T11:35:46Z</time>
      </trkpt>
      <trkpt lat="42.43098" lon="0.06673">
        <ele>718.7</ele>
        <time>2016-07-31T11:35:48Z</time>
      </trkpt>
      <trkpt lat="42.43101" lon="0.0667">
        <ele>720.4</ele>
        <time>2016-07-31T11:35:53Z</time>
      </trkpt>
      <trkpt lat="42.43103" lon="0.06668">
        <ele>721.9</ele>
        <time>2016-07-31T11:35:57Z</time>
      </trkpt>
      <trkpt lat="42.43105" lon="0.06664">
        <ele>723.1</ele>
        <time>2016-07-31T11:36:00Z</time>
      </trkpt>
      <trkpt lat="42.43104" lon="0.06659">
        <ele>723.3</ele>
        <time>2016-07-31T11:36:03Z</time>
      </trkpt>
      <trkpt lat="42.43102" lon="0.06654">
        <ele>723</ele>
        <time>2016-07-31T11:36:06Z</time>
      </trkpt>
      <trkpt lat="42.43101" lon="0.06649">
        <ele>723</ele>
        <time>2016-07-31T11:36:08Z</time>
      </trkpt>
      <trkpt lat="42.431" lon="0.06645">
        <ele>723</ele>
        <time>2016-07-31T11:36:09Z</time>
      </trkpt>
      <trkpt lat="42.43099" lon="0.06641">
        <ele>723</ele>
        <time>2016-07-31T11:36:10Z</time>
      </trkpt>
      <trkpt lat="42.43098" lon="0.06637">
        <ele>722.9</ele>
        <time>2016-07-31T11:36:11Z</time>
      </trkpt>
      <trkpt lat="42.43097" lon="0.06634">
        <ele>722.7</ele>
        <time>2016-07-31T11:36:12Z</time>
      </trkpt>
      <trkpt lat="42.43096" lon="0.06631">
        <ele>722.4</ele>
        <time>2016-07-31T11:36:13Z</time>
      </trkpt>
      <trkpt lat="42.43095" lon="0.06627">
        <ele>722</ele>
        <time>2016-07-31T11:36:14Z</time>
      </trkpt>
      <trkpt lat="42.43094" lon="0.06624">
        <ele>721.4</ele>
        <time>2016-07-31T11:36:15Z</time>
      </trkpt>
      <trkpt lat="42.43091" lon="0.06619">
        <ele>719.8</ele>
        <time>2016-07-31T11:36:17Z</time>
      </trkpt>
      <trkpt lat="42.43089" lon="0.06614">
        <ele>718.4</ele>
        <time>2016-07-31T11:36:19Z</time>
      </trkpt>
      <trkpt lat="42.43086" lon="0.06609">
        <ele>716.5</ele>
        <time>2016-07-31T11:36:21Z</time>
      </trkpt>
      <trkpt lat="42.43083" lon="0.06603">
        <ele>714.5</ele>
        <time>2016-07-31T11:36:23Z</time>
      </trkpt>
      <trkpt lat="42.43081" lon="0.06599">
        <ele>713.3</ele>
        <time>2016-07-31T11:36:24Z</time>
      </trkpt>
      <trkpt lat="42.4308" lon="0.06596">
        <ele>712.1</ele>
        <time>2016-07-31T11:36:25Z</time>
      </trkpt>
      <trkpt lat="42.43077" lon="0.06593">
        <ele>710.7</ele>
        <time>2016-07-31T11:36:26Z</time>
      </trkpt>
      <trkpt lat="42.43075" lon="0.06589">
        <ele>709.4</ele>
        <time>2016-07-31T11:36:27Z</time>
      </trkpt>
      <trkpt lat="42.43074" lon="0.06586">
        <ele>708.3</ele>
        <time>2016-07-31T11:36:28Z</time>
      </trkpt>
      <trkpt lat="42.43073" lon="0.06582">
        <ele>707.6</ele>
        <time>2016-07-31T11:36:29Z</time>
      </trkpt>
      <trkpt lat="42.43072" lon="0.06578">
        <ele>707.3</ele>
        <time>2016-07-31T11:36:30Z</time>
      </trkpt>
      <trkpt lat="42.43072" lon="0.06572">
        <ele>707.1</ele>
        <time>2016-07-31T11:36:32Z</time>
      </trkpt>
      <trkpt lat="42.43071" lon="0.06565">
        <ele>706.3</ele>
        <time>2016-07-31T11:36:34Z</time>
      </trkpt>
      <trkpt lat="42.43071" lon="0.06558">
        <ele>705.9</ele>
        <time>2016-07-31T11:36:36Z</time>
      </trkpt>
      <trkpt lat="42.43071" lon="0.06551">
        <ele>705.4</ele>
        <time>2016-07-31T11:36:38Z</time>
      </trkpt>
      <trkpt lat="42.4307" lon="0.06547">
        <ele>705.1</ele>
        <time>2016-07-31T11:36:39Z</time>
      </trkpt>
      <trkpt lat="42.43071" lon="0.0654">
        <ele>704.6</ele>
        <time>2016-07-31T11:36:41Z</time>
      </trkpt>
      <trkpt lat="42.43071" lon="0.06536">
        <ele>704.3</ele>
        <time>2016-07-31T11:36:42Z</time>
      </trkpt>
      <trkpt lat="42.43072" lon="0.0653">
        <ele>704</ele>
        <time>2016-07-31T11:36:44Z</time>
      </trkpt>
      <trkpt lat="42.43075" lon="0.06525">
        <ele>704.2</ele>
        <time>2016-07-31T11:36:46Z</time>
      </trkpt>
      <trkpt lat="42.43076" lon="0.06521">
        <ele>704.4</ele>
        <time>2016-07-31T11:36:48Z</time>
      </trkpt>
      <trkpt lat="42.43079" lon="0.06515">
        <ele>704.5</ele>
        <time>2016-07-31T11:36:50Z</time>
      </trkpt>
      <trkpt lat="42.43081" lon="0.06509">
        <ele>704.8</ele>
        <time>2016-07-31T11:36:52Z</time>
      </trkpt>
      <trkpt lat="42.43084" lon="0.06504">
        <ele>705.2</ele>
        <time>2016-07-31T11:36:54Z</time>
      </trkpt>
      <trkpt lat="42.43088" lon="0.06498">
        <ele>705.5</ele>
        <time>2016-07-31T11:36:56Z</time>
      </trkpt>
      <trkpt lat="42.43089" lon="0.06494">
        <ele>705.4</ele>
        <time>2016-07-31T11:36:57Z</time>
      </trkpt>
      <trkpt lat="42.43091" lon="0.0649">
        <ele>705.4</ele>
        <time>2016-07-31T11:36:58Z</time>
      </trkpt>
      <trkpt lat="42.43093" lon="0.06486">
        <ele>705.4</ele>
        <time>2016-07-31T11:36:59Z</time>
      </trkpt>
      <trkpt lat="42.43095" lon="0.06483">
        <ele>705.6</ele>
        <time>2016-07-31T11:37:00Z</time>
      </trkpt>
      <trkpt lat="42.43097" lon="0.0648">
        <ele>705.8</ele>
        <time>2016-07-31T11:37:01Z</time>
      </trkpt>
      <trkpt lat="42.431" lon="0.06476">
        <ele>706.1</ele>
        <time>2016-07-31T11:37:03Z</time>
      </trkpt>
      <trkpt lat="42.43102" lon="0.06472">
        <ele>706</ele>
        <time>2016-07-31T11:37:05Z</time>
      </trkpt>
      <trkpt lat="42.43105" lon="0.06466">
        <ele>705.7</ele>
        <time>2016-07-31T11:37:07Z</time>
      </trkpt>
      <trkpt lat="42.43107" lon="0.06462">
        <ele>705.3</ele>
        <time>2016-07-31T11:37:08Z</time>
      </trkpt>
      <trkpt lat="42.43108" lon="0.06458">
        <ele>704.9</ele>
        <time>2016-07-31T11:37:09Z</time>
      </trkpt>
      <trkpt lat="42.4311" lon="0.06455">
        <ele>704.9</ele>
        <time>2016-07-31T11:37:10Z</time>
      </trkpt>
      <trkpt lat="42.43114" lon="0.06451">
        <ele>705.2</ele>
        <time>2016-07-31T11:37:12Z</time>
      </trkpt>
      <trkpt lat="42.43117" lon="0.06446">
        <ele>705.5</ele>
        <time>2016-07-31T11:37:14Z</time>
      </trkpt>
      <trkpt lat="42.4312" lon="0.06443">
        <ele>705.7</ele>
        <time>2016-07-31T11:37:15Z</time>
      </trkpt>
      <trkpt lat="42.43123" lon="0.06441">
        <ele>706.1</ele>
        <time>2016-07-31T11:37:16Z</time>
      </trkpt>
      <trkpt lat="42.43126" lon="0.06439">
        <ele>706.7</ele>
        <time>2016-07-31T11:37:17Z</time>
      </trkpt>
      <trkpt lat="42.43129" lon="0.06437">
        <ele>707.5</ele>
        <time>2016-07-31T11:37:18Z</time>
      </trkpt>
      <trkpt lat="42.43132" lon="0.06435">
        <ele>708.5</ele>
        <time>2016-07-31T11:37:20Z</time>
      </trkpt>
      <trkpt lat="42.43136" lon="0.06432">
        <ele>709.2</ele>
        <time>2016-07-31T11:37:22Z</time>
      </trkpt>
      <trkpt lat="42.43139" lon="0.06429">
        <ele>709.8</ele>
        <time>2016-07-31T11:37:24Z</time>
      </trkpt>
      <trkpt lat="42.43143" lon="0.06425">
        <ele>710.3</ele>
        <time>2016-07-31T11:37:26Z</time>
      </trkpt>
      <trkpt lat="42.43145" lon="0.06422">
        <ele>710.4</ele>
        <time>2016-07-31T11:37:27Z</time>
      </trkpt>
      <trkpt lat="42.43147" lon="0.06419">
        <ele>710.5</ele>
        <time>2016-07-31T11:37:28Z</time>
      </trkpt>
      <trkpt lat="42.4315" lon="0.06416">
        <ele>710.6</ele>
        <time>2016-07-31T11:37:29Z</time>
      </trkpt>
      <trkpt lat="42.43152" lon="0.06413">
        <ele>710.8</ele>
        <time>2016-07-31T11:37:30Z</time>
      </trkpt>
      <trkpt lat="42.43154" lon="0.06411">
        <ele>711.2</ele>
        <time>2016-07-31T11:37:31Z</time>
      </trkpt>
      <trkpt lat="42.43157" lon="0.06409">
        <ele>711.5</ele>
        <time>2016-07-31T11:37:32Z</time>
      </trkpt>
      <trkpt lat="42.43159" lon="0.06406">
        <ele>711.6</ele>
        <time>2016-07-31T11:37:33Z</time>
      </trkpt>
      <trkpt lat="42.43161" lon="0.06403">
        <ele>711.4</ele>
        <time>2016-07-31T11:37:34Z</time>
      </trkpt>
      <trkpt lat="42.43163" lon="0.06399">
        <ele>711.1</ele>
        <time>2016-07-31T11:37:35Z</time>
      </trkpt>
      <trkpt lat="42.43164" lon="0.06396">
        <ele>710.7</ele>
        <time>2016-07-31T11:37:36Z</time>
      </trkpt>
      <trkpt lat="42.43165" lon="0.06393">
        <ele>710.3</ele>
        <time>2016-07-31T11:37:37Z</time>
      </trkpt>
      <trkpt lat="42.43167" lon="0.0639">
        <ele>709.8</ele>
        <time>2016-07-31T11:37:38Z</time>
      </trkpt>
      <trkpt lat="42.43169" lon="0.06386">
        <ele>709.6</ele>
        <time>2016-07-31T11:37:39Z</time>
      </trkpt>
      <trkpt lat="42.43171" lon="0.06383">
        <ele>709.5</ele>
        <time>2016-07-31T11:37:40Z</time>
      </trkpt>
      <trkpt lat="42.43174" lon="0.0638">
        <ele>709.5</ele>
        <time>2016-07-31T11:37:41Z</time>
      </trkpt>
      <trkpt lat="42.43176" lon="0.06377">
        <ele>709.5</ele>
        <time>2016-07-31T11:37:42Z</time>
      </trkpt>
      <trkpt lat="42.43179" lon="0.06374">
        <ele>709.5</ele>
        <time>2016-07-31T11:37:43Z</time>
      </trkpt>
      <trkpt lat="42.4318" lon="0.06371">
        <ele>709.2</ele>
        <time>2016-07-31T11:37:44Z</time>
      </trkpt>
      <trkpt lat="42.43182" lon="0.06367">
        <ele>708.7</ele>
        <time>2016-07-31T11:37:45Z</time>
      </trkpt>
      <trkpt lat="42.43184" lon="0.06363">
        <ele>708.1</ele>
        <time>2016-07-31T11:37:46Z</time>
      </trkpt>
      <trkpt lat="42.43185" lon="0.06359">
        <ele>707.6</ele>
        <time>2016-07-31T11:37:47Z</time>
      </trkpt>
      <trkpt lat="42.43187" lon="0.06356">
        <ele>707.1</ele>
        <time>2016-07-31T11:37:48Z</time>
      </trkpt>
      <trkpt lat="42.43188" lon="0.06352">
        <ele>706.7</ele>
        <time>2016-07-31T11:37:49Z</time>
      </trkpt>
      <trkpt lat="42.43192" lon="0.06347">
        <ele>706.5</ele>
        <time>2016-07-31T11:37:51Z</time>
      </trkpt>
      <trkpt lat="42.43194" lon="0.06345">
        <ele>706.6</ele>
        <time>2016-07-31T11:37:52Z</time>
      </trkpt>
      <trkpt lat="42.43197" lon="0.06343">
        <ele>706.8</ele>
        <time>2016-07-31T11:37:53Z</time>
      </trkpt>
      <trkpt lat="42.43199" lon="0.06341">
        <ele>706.8</ele>
        <time>2016-07-31T11:37:54Z</time>
      </trkpt>
      <trkpt lat="42.43202" lon="0.06337">
        <ele>706.7</ele>
        <time>2016-07-31T11:37:56Z</time>
      </trkpt>
      <trkpt lat="42.43205" lon="0.06334">
        <ele>706.5</ele>
        <time>2016-07-31T11:38:03Z</time>
      </trkpt>
      <trkpt lat="42.43209" lon="0.06332">
        <ele>707.3</ele>
        <time>2016-07-31T11:38:05Z</time>
      </trkpt>
      <trkpt lat="42.43212" lon="0.0633">
        <ele>707.8</ele>
        <time>2016-07-31T11:38:14Z</time>
      </trkpt>
      <trkpt lat="42.43213" lon="0.06325">
        <ele>706.4</ele>
        <time>2016-07-31T11:38:18Z</time>
      </trkpt>
      <trkpt lat="42.43212" lon="0.0632">
        <ele>705</ele>
        <time>2016-07-31T11:38:22Z</time>
      </trkpt>
      <trkpt lat="42.43213" lon="0.06316">
        <ele>703.8</ele>
        <time>2016-07-31T11:38:24Z</time>
      </trkpt>
      <trkpt lat="42.43215" lon="0.06309">
        <ele>702.5</ele>
        <time>2016-07-31T11:38:26Z</time>
      </trkpt>
      <trkpt lat="42.43218" lon="0.06306">
        <ele>702.2</ele>
        <time>2016-07-31T11:38:28Z</time>
      </trkpt>
      <trkpt lat="42.43221" lon="0.06306">
        <ele>703.4</ele>
        <time>2016-07-31T11:38:35Z</time>
      </trkpt>
      <trkpt lat="42.43224" lon="0.06308">
        <ele>704.8</ele>
        <time>2016-07-31T11:38:38Z</time>
      </trkpt>
      <trkpt lat="42.43227" lon="0.06309">
        <ele>706.3</ele>
        <time>2016-07-31T11:38:41Z</time>
      </trkpt>
      <trkpt lat="42.43229" lon="0.06311">
        <ele>707.7</ele>
        <time>2016-07-31T11:38:45Z</time>
      </trkpt>
      <trkpt lat="42.43233" lon="0.06309">
        <ele>708.2</ele>
        <time>2016-07-31T11:38:52Z</time>
      </trkpt>
      <trkpt lat="42.43236" lon="0.06307">
        <ele>708.6</ele>
        <time>2016-07-31T11:38:57Z</time>
      </trkpt>
      <trkpt lat="42.43238" lon="0.06308">
        <ele>709.7</ele>
        <time>2016-07-31T11:39:01Z</time>
      </trkpt>
      <trkpt lat="42.43241" lon="0.06308">
        <ele>710.7</ele>
        <time>2016-07-31T11:39:05Z</time>
      </trkpt>
      <trkpt lat="42.43244" lon="0.06307">
        <ele>711.3</ele>
        <time>2016-07-31T11:39:13Z</time>
      </trkpt>
      <trkpt lat="42.43247" lon="0.06308">
        <ele>712.5</ele>
        <time>2016-07-31T11:39:19Z</time>
      </trkpt>
      <trkpt lat="42.43251" lon="0.06308">
        <ele>713.8</ele>
        <time>2016-07-31T11:39:22Z</time>
      </trkpt>
      <trkpt lat="42.43254" lon="0.06307">
        <ele>714.6</ele>
        <time>2016-07-31T11:39:25Z</time>
      </trkpt>
      <trkpt lat="42.43257" lon="0.06305">
        <ele>715.1</ele>
        <time>2016-07-31T11:39:29Z</time>
      </trkpt>
      <trkpt lat="42.43259" lon="0.06303">
        <ele>715.1</ele>
        <time>2016-07-31T11:39:32Z</time>
      </trkpt>
      <trkpt lat="42.43262" lon="0.063">
        <ele>715.1</ele>
        <time>2016-07-31T11:39:36Z</time>
      </trkpt>
      <trkpt lat="42.43265" lon="0.06301">
        <ele>716.2</ele>
        <time>2016-07-31T11:39:41Z</time>
      </trkpt>
      <trkpt lat="42.43268" lon="0.063">
        <ele>717</ele>
        <time>2016-07-31T11:39:43Z</time>
      </trkpt>
      <trkpt lat="42.43273" lon="0.06301">
        <ele>718.9</ele>
        <time>2016-07-31T11:39:45Z</time>
      </trkpt>
      <trkpt lat="42.43275" lon="0.06303">
        <ele>720.3</ele>
        <time>2016-07-31T11:39:46Z</time>
      </trkpt>
      <trkpt lat="42.4328" lon="0.06305">
        <ele>722.4</ele>
        <time>2016-07-31T11:39:48Z</time>
      </trkpt>
      <trkpt lat="42.43282" lon="0.06303">
        <ele>722.5</ele>
        <time>2016-07-31T11:39:55Z</time>
      </trkpt>
      <trkpt lat="42.43286" lon="0.06301">
        <ele>723.3</ele>
        <time>2016-07-31T11:40:01Z</time>
      </trkpt>
      <trkpt lat="42.4329" lon="0.06301">
        <ele>724.5</ele>
        <time>2016-07-31T11:40:03Z</time>
      </trkpt>
      <trkpt lat="42.43295" lon="0.063">
        <ele>724.8</ele>
        <time>2016-07-31T11:40:05Z</time>
      </trkpt>
      <trkpt lat="42.43297" lon="0.06298">
        <ele>724.5</ele>
        <time>2016-07-31T11:40:06Z</time>
      </trkpt>
      <trkpt lat="42.43301" lon="0.06296">
        <ele>724</ele>
        <time>2016-07-31T11:40:08Z</time>
      </trkpt>
      <trkpt lat="42.43304" lon="0.06295">
        <ele>723.8</ele>
        <time>2016-07-31T11:40:10Z</time>
      </trkpt>
      <trkpt lat="42.43307" lon="0.06295">
        <ele>724</ele>
        <time>2016-07-31T11:40:15Z</time>
      </trkpt>
      <trkpt lat="42.43308" lon="0.06299">
        <ele>725.5</ele>
        <time>2016-07-31T11:40:18Z</time>
      </trkpt>
      <trkpt lat="42.43308" lon="0.06304">
        <ele>727</ele>
        <time>2016-07-31T11:40:21Z</time>
      </trkpt>
      <trkpt lat="42.4331" lon="0.06307">
        <ele>728.2</ele>
        <time>2016-07-31T11:40:24Z</time>
      </trkpt>
      <trkpt lat="42.43312" lon="0.06311">
        <ele>729.5</ele>
        <time>2016-07-31T11:40:28Z</time>
      </trkpt>
      <trkpt lat="42.43315" lon="0.06312">
        <ele>730.2</ele>
        <time>2016-07-31T11:40:31Z</time>
      </trkpt>
      <trkpt lat="42.43318" lon="0.06311">
        <ele>730.2</ele>
        <time>2016-07-31T11:40:35Z</time>
      </trkpt>
      <trkpt lat="42.4332" lon="0.06316">
        <ele>731.8</ele>
        <time>2016-07-31T11:40:40Z</time>
      </trkpt>
      <trkpt lat="42.43321" lon="0.06319">
        <ele>733.1</ele>
        <time>2016-07-31T11:40:45Z</time>
      </trkpt>
      <trkpt lat="42.43323" lon="0.06323">
        <ele>734.3</ele>
        <time>2016-07-31T11:40:48Z</time>
      </trkpt>
      <trkpt lat="42.43325" lon="0.06325">
        <ele>735.4</ele>
        <time>2016-07-31T11:40:51Z</time>
      </trkpt>
      <trkpt lat="42.43329" lon="0.06324">
        <ele>735</ele>
        <time>2016-07-31T11:40:54Z</time>
      </trkpt>
      <trkpt lat="42.43331" lon="0.0632">
        <ele>734.1</ele>
        <time>2016-07-31T11:40:57Z</time>
      </trkpt>
      <trkpt lat="42.43333" lon="0.06317">
        <ele>733.2</ele>
        <time>2016-07-31T11:41:01Z</time>
      </trkpt>
      <trkpt lat="42.43336" lon="0.06318">
        <ele>733.7</ele>
        <time>2016-07-31T11:41:05Z</time>
      </trkpt>
      <trkpt lat="42.43338" lon="0.06322">
        <ele>735</ele>
        <time>2016-07-31T11:41:08Z</time>
      </trkpt>
      <trkpt lat="42.4334" lon="0.06326">
        <ele>736.9</ele>
        <time>2016-07-31T11:41:10Z</time>
      </trkpt>
      <trkpt lat="42.43343" lon="0.06328">
        <ele>737.7</ele>
        <time>2016-07-31T11:41:14Z</time>
      </trkpt>
      <trkpt lat="42.43348" lon="0.06329">
        <ele>738.5</ele>
        <time>2016-07-31T11:41:17Z</time>
      </trkpt>
      <trkpt lat="42.43351" lon="0.06329">
        <ele>738.4</ele>
        <time>2016-07-31T11:41:20Z</time>
      </trkpt>
      <trkpt lat="42.43354" lon="0.06327">
        <ele>738.1</ele>
        <time>2016-07-31T11:41:24Z</time>
      </trkpt>
      <trkpt lat="42.43357" lon="0.06324">
        <ele>737.4</ele>
        <time>2016-07-31T11:41:27Z</time>
      </trkpt>
      <trkpt lat="42.4336" lon="0.06325">
        <ele>737.8</ele>
        <time>2016-07-31T11:41:31Z</time>
      </trkpt>
      <trkpt lat="42.43364" lon="0.06328">
        <ele>739.4</ele>
        <time>2016-07-31T11:41:35Z</time>
      </trkpt>
      <trkpt lat="42.43366" lon="0.06331">
        <ele>740.6</ele>
        <time>2016-07-31T11:41:37Z</time>
      </trkpt>
      <trkpt lat="42.43368" lon="0.06334">
        <ele>741.8</ele>
        <time>2016-07-31T11:41:39Z</time>
      </trkpt>
      <trkpt lat="42.43371" lon="0.06336">
        <ele>742.6</ele>
        <time>2016-07-31T11:41:41Z</time>
      </trkpt>
      <trkpt lat="42.43375" lon="0.06337">
        <ele>743.4</ele>
        <time>2016-07-31T11:41:43Z</time>
      </trkpt>
      <trkpt lat="42.43378" lon="0.06341">
        <ele>744</ele>
        <time>2016-07-31T11:41:45Z</time>
      </trkpt>
      <trkpt lat="42.4338" lon="0.06346">
        <ele>745.3</ele>
        <time>2016-07-31T11:41:47Z</time>
      </trkpt>
      <trkpt lat="42.43382" lon="0.06348">
        <ele>745.3</ele>
        <time>2016-07-31T11:41:50Z</time>
      </trkpt>
      <trkpt lat="42.43385" lon="0.06352">
        <ele>745.6</ele>
        <time>2016-07-31T11:41:52Z</time>
      </trkpt>
      <trkpt lat="42.43388" lon="0.06355">
        <ele>746.3</ele>
        <time>2016-07-31T11:41:54Z</time>
      </trkpt>
      <trkpt lat="42.43391" lon="0.06359">
        <ele>746.3</ele>
        <time>2016-07-31T11:41:56Z</time>
      </trkpt>
      <trkpt lat="42.43395" lon="0.06364">
        <ele>747</ele>
        <time>2016-07-31T11:41:58Z</time>
      </trkpt>
      <trkpt lat="42.43396" lon="0.06367">
        <ele>747.6</ele>
        <time>2016-07-31T11:41:59Z</time>
      </trkpt>
      <trkpt lat="42.43399" lon="0.0637">
        <ele>747.7</ele>
        <time>2016-07-31T11:42:00Z</time>
      </trkpt>
      <trkpt lat="42.43403" lon="0.06372">
        <ele>747.3</ele>
        <time>2016-07-31T11:42:01Z</time>
      </trkpt>
      <trkpt lat="42.43406" lon="0.06374">
        <ele>746.9</ele>
        <time>2016-07-31T11:42:02Z</time>
      </trkpt>
      <trkpt lat="42.4341" lon="0.06377">
        <ele>746.4</ele>
        <time>2016-07-31T11:42:03Z</time>
      </trkpt>
      <trkpt lat="42.43415" lon="0.0638">
        <ele>746.2</ele>
        <time>2016-07-31T11:42:04Z</time>
      </trkpt>
      <trkpt lat="42.43418" lon="0.06384">
        <ele>746.2</ele>
        <time>2016-07-31T11:42:05Z</time>
      </trkpt>
      <trkpt lat="42.4342" lon="0.06389">
        <ele>746.8</ele>
        <time>2016-07-31T11:42:06Z</time>
      </trkpt>
      <trkpt lat="42.43422" lon="0.06394">
        <ele>747.5</ele>
        <time>2016-07-31T11:42:07Z</time>
      </trkpt>
      <trkpt lat="42.43424" lon="0.06398">
        <ele>748.1</ele>
        <time>2016-07-31T11:42:08Z</time>
      </trkpt>
      <trkpt lat="42.43425" lon="0.06402">
        <ele>748.8</ele>
        <time>2016-07-31T11:42:09Z</time>
      </trkpt>
      <trkpt lat="42.43426" lon="0.06406">
        <ele>749.5</ele>
        <time>2016-07-31T11:42:10Z</time>
      </trkpt>
      <trkpt lat="42.43427" lon="0.0641">
        <ele>750.1</ele>
        <time>2016-07-31T11:42:11Z</time>
      </trkpt>
      <trkpt lat="42.43428" lon="0.06415">
        <ele>751.2</ele>
        <time>2016-07-31T11:42:13Z</time>
      </trkpt>
      <trkpt lat="42.4343" lon="0.06421">
        <ele>752.2</ele>
        <time>2016-07-31T11:42:15Z</time>
      </trkpt>
      <trkpt lat="42.43432" lon="0.06426">
        <ele>752.5</ele>
        <time>2016-07-31T11:42:17Z</time>
      </trkpt>
      <trkpt lat="42.43434" lon="0.06429">
        <ele>752.2</ele>
        <time>2016-07-31T11:42:18Z</time>
      </trkpt>
      <trkpt lat="42.43437" lon="0.06431">
        <ele>751.7</ele>
        <time>2016-07-31T11:42:19Z</time>
      </trkpt>
      <trkpt lat="42.4344" lon="0.06433">
        <ele>751.1</ele>
        <time>2016-07-31T11:42:21Z</time>
      </trkpt>
      <trkpt lat="42.43443" lon="0.06436">
        <ele>750.5</ele>
        <time>2016-07-31T11:42:23Z</time>
      </trkpt>
      <trkpt lat="42.43445" lon="0.06443">
        <ele>751</ele>
        <time>2016-07-31T11:42:25Z</time>
      </trkpt>
      <trkpt lat="42.43446" lon="0.06449">
        <ele>751.8</ele>
        <time>2016-07-31T11:42:26Z</time>
      </trkpt>
      <trkpt lat="42.43448" lon="0.06455">
        <ele>752.4</ele>
        <time>2016-07-31T11:42:27Z</time>
      </trkpt>
      <trkpt lat="42.4345" lon="0.06459">
        <ele>752.2</ele>
        <time>2016-07-31T11:42:29Z</time>
      </trkpt>
      <trkpt lat="42.43454" lon="0.0646">
        <ele>750.5</ele>
        <time>2016-07-31T11:42:31Z</time>
      </trkpt>
      <trkpt lat="42.43458" lon="0.06458">
        <ele>748.3</ele>
        <time>2016-07-31T11:42:33Z</time>
      </trkpt>
      <trkpt lat="42.43461" lon="0.06459">
        <ele>747</ele>
        <time>2016-07-31T11:42:36Z</time>
      </trkpt>
      <trkpt lat="42.43464" lon="0.06457">
        <ele>745.4</ele>
        <time>2016-07-31T11:42:39Z</time>
      </trkpt>
      <trkpt lat="42.43468" lon="0.0646">
        <ele>744.3</ele>
        <time>2016-07-31T11:42:41Z</time>
      </trkpt>
      <trkpt lat="42.43473" lon="0.06465">
        <ele>743.8</ele>
        <time>2016-07-31T11:42:43Z</time>
      </trkpt>
      <trkpt lat="42.43475" lon="0.06469">
        <ele>743.5</ele>
        <time>2016-07-31T11:42:44Z</time>
      </trkpt>
      <trkpt lat="42.43479" lon="0.06473">
        <ele>743.2</ele>
        <time>2016-07-31T11:42:45Z</time>
      </trkpt>
      <trkpt lat="42.43481" lon="0.06477">
        <ele>743</ele>
        <time>2016-07-31T11:42:46Z</time>
      </trkpt>
      <trkpt lat="42.43484" lon="0.06481">
        <ele>742.7</ele>
        <time>2016-07-31T11:42:47Z</time>
      </trkpt>
      <trkpt lat="42.43487" lon="0.06486">
        <ele>742.5</ele>
        <time>2016-07-31T11:42:48Z</time>
      </trkpt>
      <trkpt lat="42.4349" lon="0.06492">
        <ele>742</ele>
        <time>2016-07-31T11:42:49Z</time>
      </trkpt>
      <trkpt lat="42.43494" lon="0.06497">
        <ele>741.6</ele>
        <time>2016-07-31T11:42:50Z</time>
      </trkpt>
      <trkpt lat="42.43497" lon="0.06503">
        <ele>741.1</ele>
        <time>2016-07-31T11:42:51Z</time>
      </trkpt>
      <trkpt lat="42.43501" lon="0.06509">
        <ele>740.3</ele>
        <time>2016-07-31T11:42:52Z</time>
      </trkpt>
      <trkpt lat="42.43506" lon="0.06514">
        <ele>739.3</ele>
        <time>2016-07-31T11:42:53Z</time>
      </trkpt>
      <trkpt lat="42.4351" lon="0.06519">
        <ele>738.2</ele>
        <time>2016-07-31T11:42:54Z</time>
      </trkpt>
      <trkpt lat="42.43513" lon="0.06522">
        <ele>737</ele>
        <time>2016-07-31T11:42:55Z</time>
      </trkpt>
      <trkpt lat="42.43516" lon="0.06526">
        <ele>736.2</ele>
        <time>2016-07-31T11:42:56Z</time>
      </trkpt>
      <trkpt lat="42.43518" lon="0.06529">
        <ele>735.7</ele>
        <time>2016-07-31T11:42:57Z</time>
      </trkpt>
      <trkpt lat="42.4352" lon="0.06532">
        <ele>735.3</ele>
        <time>2016-07-31T11:42:58Z</time>
      </trkpt>
      <trkpt lat="42.43523" lon="0.06538">
        <ele>734.3</ele>
        <time>2016-07-31T11:43:00Z</time>
      </trkpt>
      <trkpt lat="42.43525" lon="0.06543">
        <ele>733.9</ele>
        <time>2016-07-31T11:43:01Z</time>
      </trkpt>
      <trkpt lat="42.43527" lon="0.06548">
        <ele>733.4</ele>
        <time>2016-07-31T11:43:02Z</time>
      </trkpt>
      <trkpt lat="42.43529" lon="0.06554">
        <ele>733.2</ele>
        <time>2016-07-31T11:43:03Z</time>
      </trkpt>
      <trkpt lat="42.4353" lon="0.06558">
        <ele>732.9</ele>
        <time>2016-07-31T11:43:04Z</time>
      </trkpt>
      <trkpt lat="42.43532" lon="0.06563">
        <ele>732.6</ele>
        <time>2016-07-31T11:43:05Z</time>
      </trkpt>
      <trkpt lat="42.43532" lon="0.06567">
        <ele>732.6</ele>
        <time>2016-07-31T11:43:06Z</time>
      </trkpt>
      <trkpt lat="42.43533" lon="0.06571">
        <ele>732.6</ele>
        <time>2016-07-31T11:43:07Z</time>
      </trkpt>
      <trkpt lat="42.43534" lon="0.06575">
        <ele>732.6</ele>
        <time>2016-07-31T11:43:08Z</time>
      </trkpt>
      <trkpt lat="42.43535" lon="0.06579">
        <ele>732.4</ele>
        <time>2016-07-31T11:43:09Z</time>
      </trkpt>
      <trkpt lat="42.43536" lon="0.06583">
        <ele>732.2</ele>
        <time>2016-07-31T11:43:10Z</time>
      </trkpt>
      <trkpt lat="42.43538" lon="0.0659">
        <ele>731.6</ele>
        <time>2016-07-31T11:43:12Z</time>
      </trkpt>
      <trkpt lat="42.43539" lon="0.06594">
        <ele>731.3</ele>
        <time>2016-07-31T11:43:13Z</time>
      </trkpt>
      <trkpt lat="42.4354" lon="0.06599">
        <ele>731.3</ele>
        <time>2016-07-31T11:43:14Z</time>
      </trkpt>
      <trkpt lat="42.43541" lon="0.06603">
        <ele>731.5</ele>
        <time>2016-07-31T11:43:15Z</time>
      </trkpt>
      <trkpt lat="42.43541" lon="0.06608">
        <ele>731.9</ele>
        <time>2016-07-31T11:43:16Z</time>
      </trkpt>
      <trkpt lat="42.43541" lon="0.06612">
        <ele>732.2</ele>
        <time>2016-07-31T11:43:17Z</time>
      </trkpt>
      <trkpt lat="42.43541" lon="0.06615">
        <ele>732.6</ele>
        <time>2016-07-31T11:43:18Z</time>
      </trkpt>
      <trkpt lat="42.43541" lon="0.06619">
        <ele>733.1</ele>
        <time>2016-07-31T11:43:19Z</time>
      </trkpt>
      <trkpt lat="42.43541" lon="0.06625">
        <ele>733.2</ele>
        <time>2016-07-31T11:43:21Z</time>
      </trkpt>
      <trkpt lat="42.43542" lon="0.06631">
        <ele>732.7</ele>
        <time>2016-07-31T11:43:23Z</time>
      </trkpt>
      <trkpt lat="42.43543" lon="0.06635">
        <ele>732.4</ele>
        <time>2016-07-31T11:43:25Z</time>
      </trkpt>
      <trkpt lat="42.43544" lon="0.06639">
        <ele>731.6</ele>
        <time>2016-07-31T11:43:28Z</time>
      </trkpt>
      <trkpt lat="42.43546" lon="0.06642">
        <ele>730.6</ele>
        <time>2016-07-31T11:43:37Z</time>
      </trkpt>
      <trkpt lat="42.43544" lon="0.06646">
        <ele>731.8</ele>
        <time>2016-07-31T11:43:43Z</time>
      </trkpt>
      <trkpt lat="42.43548" lon="0.06648">
        <ele>729.7</ele>
        <time>2016-07-31T11:43:50Z</time>
      </trkpt>
      <trkpt lat="42.43551" lon="0.06644">
        <ele>727.4</ele>
        <time>2016-07-31T11:43:52Z</time>
      </trkpt>
      <trkpt lat="42.43553" lon="0.06641">
        <ele>725.8</ele>
        <time>2016-07-31T11:43:54Z</time>
      </trkpt>
      <trkpt lat="42.43555" lon="0.06638">
        <ele>724.4</ele>
        <time>2016-07-31T11:44:03Z</time>
      </trkpt>
      <trkpt lat="42.43555" lon="0.06644">
        <ele>725.1</ele>
        <time>2016-07-31T11:44:09Z</time>
      </trkpt>
      <trkpt lat="42.43555" lon="0.06648">
        <ele>725.1</ele>
        <time>2016-07-31T11:44:10Z</time>
      </trkpt>
      <trkpt lat="42.43555" lon="0.06652">
        <ele>725</ele>
        <time>2016-07-31T11:44:11Z</time>
      </trkpt>
      <trkpt lat="42.43555" lon="0.06657">
        <ele>725.2</ele>
        <time>2016-07-31T11:44:12Z</time>
      </trkpt>
      <trkpt lat="42.43555" lon="0.06661">
        <ele>725.1</ele>
        <time>2016-07-31T11:44:13Z</time>
      </trkpt>
      <trkpt lat="42.43554" lon="0.06668">
        <ele>725.5</ele>
        <time>2016-07-31T11:44:15Z</time>
      </trkpt>
      <trkpt lat="42.43554" lon="0.06672">
        <ele>725.8</ele>
        <time>2016-07-31T11:44:16Z</time>
      </trkpt>
      <trkpt lat="42.43553" lon="0.06679">
        <ele>726.7</ele>
        <time>2016-07-31T11:44:18Z</time>
      </trkpt>
      <trkpt lat="42.43552" lon="0.06682">
        <ele>727.4</ele>
        <time>2016-07-31T11:44:19Z</time>
      </trkpt>
      <trkpt lat="42.43552" lon="0.06687">
        <ele>727.5</ele>
        <time>2016-07-31T11:44:20Z</time>
      </trkpt>
      <trkpt lat="42.43552" lon="0.06692">
        <ele>727.2</ele>
        <time>2016-07-31T11:44:21Z</time>
      </trkpt>
      <trkpt lat="42.43552" lon="0.06698">
        <ele>727.6</ele>
        <time>2016-07-31T11:44:22Z</time>
      </trkpt>
      <trkpt lat="42.43552" lon="0.06703">
        <ele>727.7</ele>
        <time>2016-07-31T11:44:24Z</time>
      </trkpt>
      <trkpt lat="42.43552" lon="0.06707">
        <ele>727.5</ele>
        <time>2016-07-31T11:44:25Z</time>
      </trkpt>
      <trkpt lat="42.43553" lon="0.06712">
        <ele>726.6</ele>
        <time>2016-07-31T11:44:26Z</time>
      </trkpt>
      <trkpt lat="42.43554" lon="0.06716">
        <ele>725.7</ele>
        <time>2016-07-31T11:44:27Z</time>
      </trkpt>
      <trkpt lat="42.43554" lon="0.0672">
        <ele>724.9</ele>
        <time>2016-07-31T11:44:28Z</time>
      </trkpt>
      <trkpt lat="42.43555" lon="0.06724">
        <ele>724</ele>
        <time>2016-07-31T11:44:29Z</time>
      </trkpt>
      <trkpt lat="42.43557" lon="0.0673">
        <ele>722.5</ele>
        <time>2016-07-31T11:44:30Z</time>
      </trkpt>
      <trkpt lat="42.43559" lon="0.06735">
        <ele>720.6</ele>
        <time>2016-07-31T11:44:31Z</time>
      </trkpt>
      <trkpt lat="42.43561" lon="0.06741">
        <ele>718.7</ele>
        <time>2016-07-31T11:44:32Z</time>
      </trkpt>
      <trkpt lat="42.43563" lon="0.06747">
        <ele>716.8</ele>
        <time>2016-07-31T11:44:33Z</time>
      </trkpt>
      <trkpt lat="42.43564" lon="0.06752">
        <ele>715.6</ele>
        <time>2016-07-31T11:44:34Z</time>
      </trkpt>
      <trkpt lat="42.43565" lon="0.06756">
        <ele>714.5</ele>
        <time>2016-07-31T11:44:35Z</time>
      </trkpt>
      <trkpt lat="42.43567" lon="0.0676">
        <ele>713.2</ele>
        <time>2016-07-31T11:44:36Z</time>
      </trkpt>
      <trkpt lat="42.43568" lon="0.06763">
        <ele>711.8</ele>
        <time>2016-07-31T11:44:37Z</time>
      </trkpt>
      <trkpt lat="42.4357" lon="0.06767">
        <ele>710.5</ele>
        <time>2016-07-31T11:44:38Z</time>
      </trkpt>
      <trkpt lat="42.43571" lon="0.06771">
        <ele>709.4</ele>
        <time>2016-07-31T11:44:39Z</time>
      </trkpt>
      <trkpt lat="42.43572" lon="0.06775">
        <ele>708.7</ele>
        <time>2016-07-31T11:44:40Z</time>
      </trkpt>
      <trkpt lat="42.43572" lon="0.0678">
        <ele>707.7</ele>
        <time>2016-07-31T11:44:42Z</time>
      </trkpt>
      <trkpt lat="42.43575" lon="0.06786">
        <ele>705.8</ele>
        <time>2016-07-31T11:44:44Z</time>
      </trkpt>
      <trkpt lat="42.43576" lon="0.0679">
        <ele>704.5</ele>
        <time>2016-07-31T11:44:46Z</time>
      </trkpt>
      <trkpt lat="42.43574" lon="0.06793">
        <ele>705.6</ele>
        <time>2016-07-31T11:44:54Z</time>
      </trkpt>
      <trkpt lat="42.43574" lon="0.06797">
        <ele>705.7</ele>
        <time>2016-07-31T11:44:58Z</time>
      </trkpt>
      <trkpt lat="42.43573" lon="0.06801">
        <ele>706.1</ele>
        <time>2016-07-31T11:45:01Z</time>
      </trkpt>
      <trkpt lat="42.43573" lon="0.06806">
        <ele>705.7</ele>
        <time>2016-07-31T11:45:03Z</time>
      </trkpt>
      <trkpt lat="42.43575" lon="0.06811">
        <ele>704.5</ele>
        <time>2016-07-31T11:45:05Z</time>
      </trkpt>
      <trkpt lat="42.43578" lon="0.06817">
        <ele>702.9</ele>
        <time>2016-07-31T11:45:07Z</time>
      </trkpt>
      <trkpt lat="42.4358" lon="0.06821">
        <ele>701.6</ele>
        <time>2016-07-31T11:45:08Z</time>
      </trkpt>
      <trkpt lat="42.43581" lon="0.06825">
        <ele>700.5</ele>
        <time>2016-07-31T11:45:09Z</time>
      </trkpt>
      <trkpt lat="42.43583" lon="0.06831">
        <ele>699.6</ele>
        <time>2016-07-31T11:45:10Z</time>
      </trkpt>
      <trkpt lat="42.43583" lon="0.06835">
        <ele>699.3</ele>
        <time>2016-07-31T11:45:11Z</time>
      </trkpt>
      <trkpt lat="42.43583" lon="0.06841">
        <ele>699.5</ele>
        <time>2016-07-31T11:45:12Z</time>
      </trkpt>
      <trkpt lat="42.43582" lon="0.06846">
        <ele>699.6</ele>
        <time>2016-07-31T11:45:13Z</time>
      </trkpt>
      <trkpt lat="42.43582" lon="0.06851">
        <ele>699.7</ele>
        <time>2016-07-31T11:45:14Z</time>
      </trkpt>
      <trkpt lat="42.43582" lon="0.06857">
        <ele>699.6</ele>
        <time>2016-07-31T11:45:15Z</time>
      </trkpt>
      <trkpt lat="42.43582" lon="0.06863">
        <ele>699.4</ele>
        <time>2016-07-31T11:45:16Z</time>
      </trkpt>
      <trkpt lat="42.43583" lon="0.06868">
        <ele>698.7</ele>
        <time>2016-07-31T11:45:17Z</time>
      </trkpt>
      <trkpt lat="42.43584" lon="0.06873">
        <ele>698.1</ele>
        <time>2016-07-31T11:45:18Z</time>
      </trkpt>
      <trkpt lat="42.43586" lon="0.06878">
        <ele>697.2</ele>
        <time>2016-07-31T11:45:19Z</time>
      </trkpt>
      <trkpt lat="42.43586" lon="0.06884">
        <ele>696.3</ele>
        <time>2016-07-31T11:45:20Z</time>
      </trkpt>
      <trkpt lat="42.43586" lon="0.0689">
        <ele>695.7</ele>
        <time>2016-07-31T11:45:21Z</time>
      </trkpt>
      <trkpt lat="42.43586" lon="0.06895">
        <ele>695</ele>
        <time>2016-07-31T11:45:22Z</time>
      </trkpt>
      <trkpt lat="42.43586" lon="0.06899">
        <ele>694.8</ele>
        <time>2016-07-31T11:45:23Z</time>
      </trkpt>
      <trkpt lat="42.43585" lon="0.06906">
        <ele>694.5</ele>
        <time>2016-07-31T11:45:25Z</time>
      </trkpt>
      <trkpt lat="42.43585" lon="0.0691">
        <ele>694</ele>
        <time>2016-07-31T11:45:26Z</time>
      </trkpt>
      <trkpt lat="42.43586" lon="0.06914">
        <ele>693.2</ele>
        <time>2016-07-31T11:45:27Z</time>
      </trkpt>
      <trkpt lat="42.43588" lon="0.06918">
        <ele>692</ele>
        <time>2016-07-31T11:45:28Z</time>
      </trkpt>
      <trkpt lat="42.43591" lon="0.06924">
        <ele>690.5</ele>
        <time>2016-07-31T11:45:29Z</time>
      </trkpt>
      <trkpt lat="42.43593" lon="0.0693">
        <ele>689.2</ele>
        <time>2016-07-31T11:45:30Z</time>
      </trkpt>
      <trkpt lat="42.43596" lon="0.06937">
        <ele>687.8</ele>
        <time>2016-07-31T11:45:31Z</time>
      </trkpt>
      <trkpt lat="42.43598" lon="0.06945">
        <ele>686.6</ele>
        <time>2016-07-31T11:45:32Z</time>
      </trkpt>
      <trkpt lat="42.43599" lon="0.06953">
        <ele>685.5</ele>
        <time>2016-07-31T11:45:33Z</time>
      </trkpt>
      <trkpt lat="42.436" lon="0.0696">
        <ele>684.7</ele>
        <time>2016-07-31T11:45:34Z</time>
      </trkpt>
      <trkpt lat="42.436" lon="0.06965">
        <ele>683.7</ele>
        <time>2016-07-31T11:45:35Z</time>
      </trkpt>
      <trkpt lat="42.436" lon="0.06971">
        <ele>682.8</ele>
        <time>2016-07-31T11:45:36Z</time>
      </trkpt>
      <trkpt lat="42.43599" lon="0.06976">
        <ele>682.1</ele>
        <time>2016-07-31T11:45:37Z</time>
      </trkpt>
      <trkpt lat="42.43599" lon="0.06982">
        <ele>681.2</ele>
        <time>2016-07-31T11:45:38Z</time>
      </trkpt>
      <trkpt lat="42.43598" lon="0.06986">
        <ele>680.5</ele>
        <time>2016-07-31T11:45:39Z</time>
      </trkpt>
      <trkpt lat="42.43598" lon="0.06991">
        <ele>679.7</ele>
        <time>2016-07-31T11:45:40Z</time>
      </trkpt>
      <trkpt lat="42.43597" lon="0.06996">
        <ele>679</ele>
        <time>2016-07-31T11:45:41Z</time>
      </trkpt>
      <trkpt lat="42.43595" lon="0.07">
        <ele>678.8</ele>
        <time>2016-07-31T11:45:44Z</time>
      </trkpt>
      <trkpt lat="42.43593" lon="0.07004">
        <ele>678.6</ele>
        <time>2016-07-31T11:45:50Z</time>
      </trkpt>
      <trkpt lat="42.43595" lon="0.07008">
        <ele>677.5</ele>
        <time>2016-07-31T11:45:55Z</time>
      </trkpt>
      <trkpt lat="42.43593" lon="0.07012">
        <ele>677.1</ele>
        <time>2016-07-31T11:45:58Z</time>
      </trkpt>
      <trkpt lat="42.43591" lon="0.07017">
        <ele>676.8</ele>
        <time>2016-07-31T11:46:00Z</time>
      </trkpt>
      <trkpt lat="42.43589" lon="0.07022">
        <ele>676</ele>
        <time>2016-07-31T11:46:02Z</time>
      </trkpt>
      <trkpt lat="42.43591" lon="0.07026">
        <ele>674.9</ele>
        <time>2016-07-31T11:46:04Z</time>
      </trkpt>
      <trkpt lat="42.43594" lon="0.07028">
        <ele>674</ele>
        <time>2016-07-31T11:46:06Z</time>
      </trkpt>
      <trkpt lat="42.43597" lon="0.07032">
        <ele>672.9</ele>
        <time>2016-07-31T11:46:08Z</time>
      </trkpt>
      <trkpt lat="42.43596" lon="0.07039">
        <ele>671.8</ele>
        <time>2016-07-31T11:46:10Z</time>
      </trkpt>
      <trkpt lat="42.43594" lon="0.07043">
        <ele>671.2</ele>
        <time>2016-07-31T11:46:11Z</time>
      </trkpt>
      <trkpt lat="42.43593" lon="0.07046">
        <ele>670.5</ele>
        <time>2016-07-31T11:46:12Z</time>
      </trkpt>
      <trkpt lat="42.43592" lon="0.07051">
        <ele>669.4</ele>
        <time>2016-07-31T11:46:14Z</time>
      </trkpt>
      <trkpt lat="42.43595" lon="0.0705">
        <ele>669.2</ele>
        <time>2016-07-31T11:46:18Z</time>
      </trkpt>
      <trkpt lat="42.43597" lon="0.07056">
        <ele>667.2</ele>
        <time>2016-07-31T11:46:21Z</time>
      </trkpt>
      <trkpt lat="42.43597" lon="0.07059">
        <ele>666.1</ele>
        <time>2016-07-31T11:46:22Z</time>
      </trkpt>
      <trkpt lat="42.43596" lon="0.07064">
        <ele>665</ele>
        <time>2016-07-31T11:46:23Z</time>
      </trkpt>
      <trkpt lat="42.43594" lon="0.07069">
        <ele>663.9</ele>
        <time>2016-07-31T11:46:24Z</time>
      </trkpt>
      <trkpt lat="42.43593" lon="0.07073">
        <ele>663</ele>
        <time>2016-07-31T11:46:25Z</time>
      </trkpt>
      <trkpt lat="42.43591" lon="0.07077">
        <ele>662.3</ele>
        <time>2016-07-31T11:46:26Z</time>
      </trkpt>
      <trkpt lat="42.43588" lon="0.07083">
        <ele>660.8</ele>
        <time>2016-07-31T11:46:28Z</time>
      </trkpt>
      <trkpt lat="42.43587" lon="0.07086">
        <ele>660.1</ele>
        <time>2016-07-31T11:46:29Z</time>
      </trkpt>
      <trkpt lat="42.43586" lon="0.0709">
        <ele>659.3</ele>
        <time>2016-07-31T11:46:30Z</time>
      </trkpt>
      <trkpt lat="42.43584" lon="0.07094">
        <ele>658.2</ele>
        <time>2016-07-31T11:46:31Z</time>
      </trkpt>
      <trkpt lat="42.43583" lon="0.071">
        <ele>656.8</ele>
        <time>2016-07-31T11:46:32Z</time>
      </trkpt>
      <trkpt lat="42.43582" lon="0.07105">
        <ele>655.6</ele>
        <time>2016-07-31T11:46:33Z</time>
      </trkpt>
      <trkpt lat="42.43581" lon="0.0711">
        <ele>654.1</ele>
        <time>2016-07-31T11:46:35Z</time>
      </trkpt>
      <trkpt lat="42.43581" lon="0.07115">
        <ele>652.7</ele>
        <time>2016-07-31T11:46:37Z</time>
      </trkpt>
      <trkpt lat="42.43584" lon="0.07116">
        <ele>652.1</ele>
        <time>2016-07-31T11:46:40Z</time>
      </trkpt>
      <trkpt lat="42.43588" lon="0.07112">
        <ele>652.6</ele>
        <time>2016-07-31T11:46:42Z</time>
      </trkpt>
      <trkpt lat="42.43591" lon="0.07112">
        <ele>652.3</ele>
        <time>2016-07-31T11:46:44Z</time>
      </trkpt>
      <trkpt lat="42.43593" lon="0.07118">
        <ele>650.3</ele>
        <time>2016-07-31T11:46:46Z</time>
      </trkpt>
      <trkpt lat="42.43593" lon="0.07122">
        <ele>649.1</ele>
        <time>2016-07-31T11:46:48Z</time>
      </trkpt>
      <trkpt lat="42.43595" lon="0.07125">
        <ele>647.9</ele>
        <time>2016-07-31T11:46:50Z</time>
      </trkpt>
      <trkpt lat="42.43599" lon="0.07127">
        <ele>647.1</ele>
        <time>2016-07-31T11:46:52Z</time>
      </trkpt>
      <trkpt lat="42.43602" lon="0.07128">
        <ele>646.6</ele>
        <time>2016-07-31T11:46:54Z</time>
      </trkpt>
      <trkpt lat="42.43605" lon="0.07127">
        <ele>646.3</ele>
        <time>2016-07-31T11:46:56Z</time>
      </trkpt>
      <trkpt lat="42.43608" lon="0.07126">
        <ele>646</ele>
        <time>2016-07-31T11:46:58Z</time>
      </trkpt>
      <trkpt lat="42.43608" lon="0.07132">
        <ele>645.2</ele>
        <time>2016-07-31T11:47:01Z</time>
      </trkpt>
      <trkpt lat="42.43607" lon="0.07136">
        <ele>644.7</ele>
        <time>2016-07-31T11:47:03Z</time>
      </trkpt>
      <trkpt lat="42.43607" lon="0.0714">
        <ele>644.1</ele>
        <time>2016-07-31T11:47:05Z</time>
      </trkpt>
      <trkpt lat="42.43605" lon="0.07146">
        <ele>643.5</ele>
        <time>2016-07-31T11:47:07Z</time>
      </trkpt>
      <trkpt lat="42.43604" lon="0.07153">
        <ele>642.7</ele>
        <time>2016-07-31T11:47:09Z</time>
      </trkpt>
      <trkpt lat="42.43604" lon="0.07157">
        <ele>642.1</ele>
        <time>2016-07-31T11:47:10Z</time>
      </trkpt>
      <trkpt lat="42.43604" lon="0.07161">
        <ele>641.4</ele>
        <time>2016-07-31T11:47:11Z</time>
      </trkpt>
      <trkpt lat="42.43604" lon="0.07165">
        <ele>640.7</ele>
        <time>2016-07-31T11:47:12Z</time>
      </trkpt>
      <trkpt lat="42.43605" lon="0.07169">
        <ele>640</ele>
        <time>2016-07-31T11:47:13Z</time>
      </trkpt>
      <trkpt lat="42.43606" lon="0.07173">
        <ele>639.4</ele>
        <time>2016-07-31T11:47:14Z</time>
      </trkpt>
      <trkpt lat="42.43607" lon="0.07176">
        <ele>638.7</ele>
        <time>2016-07-31T11:47:15Z</time>
      </trkpt>
      <trkpt lat="42.43608" lon="0.07182">
        <ele>637.8</ele>
        <time>2016-07-31T11:47:17Z</time>
      </trkpt>
      <trkpt lat="42.4361" lon="0.07185">
        <ele>637.1</ele>
        <time>2016-07-31T11:47:20Z</time>
      </trkpt>
      <trkpt lat="42.43613" lon="0.07183">
        <ele>637.1</ele>
        <time>2016-07-31T11:47:24Z</time>
      </trkpt>
      <trkpt lat="42.43615" lon="0.0718">
        <ele>637.3</ele>
        <time>2016-07-31T11:47:28Z</time>
      </trkpt>
      <trkpt lat="42.43615" lon="0.07176">
        <ele>637.8</ele>
        <time>2016-07-31T11:47:32Z</time>
      </trkpt>
      <trkpt lat="42.43616" lon="0.07172">
        <ele>638.3</ele>
        <time>2016-07-31T11:47:37Z</time>
      </trkpt>
      <trkpt lat="42.43618" lon="0.07167">
        <ele>638.8</ele>
        <time>2016-07-31T11:47:41Z</time>
      </trkpt>
      <trkpt lat="42.43621" lon="0.07164">
        <ele>639</ele>
        <time>2016-07-31T11:47:43Z</time>
      </trkpt>
      <trkpt lat="42.43624" lon="0.0716">
        <ele>639.1</ele>
        <time>2016-07-31T11:47:45Z</time>
      </trkpt>
      <trkpt lat="42.43626" lon="0.07157">
        <ele>638.9</ele>
        <time>2016-07-31T11:47:47Z</time>
      </trkpt>
      <trkpt lat="42.43629" lon="0.07154">
        <ele>637.8</ele>
        <time>2016-07-31T11:47:49Z</time>
      </trkpt>
      <trkpt lat="42.43632" lon="0.07153">
        <ele>636.3</ele>
        <time>2016-07-31T11:47:51Z</time>
      </trkpt>
      <trkpt lat="42.43636" lon="0.07157">
        <ele>634.2</ele>
        <time>2016-07-31T11:47:53Z</time>
      </trkpt>
      <trkpt lat="42.43636" lon="0.07163">
        <ele>633.3</ele>
        <time>2016-07-31T11:47:55Z</time>
      </trkpt>
      <trkpt lat="42.43635" lon="0.07167">
        <ele>633.4</ele>
        <time>2016-07-31T11:47:56Z</time>
      </trkpt>
      <trkpt lat="42.43633" lon="0.07171">
        <ele>633.6</ele>
        <time>2016-07-31T11:47:57Z</time>
      </trkpt>
      <trkpt lat="42.43632" lon="0.07175">
        <ele>633.7</ele>
        <time>2016-07-31T11:47:58Z</time>
      </trkpt>
      <trkpt lat="42.43631" lon="0.07179">
        <ele>633.6</ele>
        <time>2016-07-31T11:47:59Z</time>
      </trkpt>
      <trkpt lat="42.43629" lon="0.07183">
        <ele>633.6</ele>
        <time>2016-07-31T11:48:00Z</time>
      </trkpt>
      <trkpt lat="42.43628" lon="0.07189">
        <ele>633.4</ele>
        <time>2016-07-31T11:48:02Z</time>
      </trkpt>
      <trkpt lat="42.43627" lon="0.07194">
        <ele>633.1</ele>
        <time>2016-07-31T11:48:04Z</time>
      </trkpt>
      <trkpt lat="42.43625" lon="0.07199">
        <ele>633.3</ele>
        <time>2016-07-31T11:48:06Z</time>
      </trkpt>
      <trkpt lat="42.43625" lon="0.07204">
        <ele>632.5</ele>
        <time>2016-07-31T11:48:09Z</time>
      </trkpt>
      <trkpt lat="42.43627" lon="0.07208">
        <ele>631.4</ele>
        <time>2016-07-31T11:48:11Z</time>
      </trkpt>
      <trkpt lat="42.43628" lon="0.07214">
        <ele>630</ele>
        <time>2016-07-31T11:48:13Z</time>
      </trkpt>
      <trkpt lat="42.4363" lon="0.07218">
        <ele>629.3</ele>
        <time>2016-07-31T11:48:14Z</time>
      </trkpt>
      <trkpt lat="42.43631" lon="0.07221">
        <ele>628.5</ele>
        <time>2016-07-31T11:48:15Z</time>
      </trkpt>
      <trkpt lat="42.43632" lon="0.07225">
        <ele>627.4</ele>
        <time>2016-07-31T11:48:16Z</time>
      </trkpt>
      <trkpt lat="42.43634" lon="0.0723">
        <ele>626.1</ele>
        <time>2016-07-31T11:48:17Z</time>
      </trkpt>
      <trkpt lat="42.43636" lon="0.07235">
        <ele>624.8</ele>
        <time>2016-07-31T11:48:18Z</time>
      </trkpt>
      <trkpt lat="42.43637" lon="0.07241">
        <ele>623.8</ele>
        <time>2016-07-31T11:48:19Z</time>
      </trkpt>
      <trkpt lat="42.43638" lon="0.07248">
        <ele>623</ele>
        <time>2016-07-31T11:48:20Z</time>
      </trkpt>
      <trkpt lat="42.43637" lon="0.07254">
        <ele>622.7</ele>
        <time>2016-07-31T11:48:21Z</time>
      </trkpt>
      <trkpt lat="42.43637" lon="0.07258">
        <ele>622.7</ele>
        <time>2016-07-31T11:48:22Z</time>
      </trkpt>
      <trkpt lat="42.43635" lon="0.07262">
        <ele>623</ele>
        <time>2016-07-31T11:48:24Z</time>
      </trkpt>
      <trkpt lat="42.43635" lon="0.07266">
        <ele>622.8</ele>
        <time>2016-07-31T11:48:26Z</time>
      </trkpt>
      <trkpt lat="42.43637" lon="0.07269">
        <ele>621.6</ele>
        <time>2016-07-31T11:48:38Z</time>
      </trkpt>
      <trkpt lat="42.43636" lon="0.07272">
        <ele>621.7</ele>
        <time>2016-07-31T11:48:41Z</time>
      </trkpt>
      <trkpt lat="42.43635" lon="0.07279">
        <ele>621.6</ele>
        <time>2016-07-31T11:48:43Z</time>
      </trkpt>
      <trkpt lat="42.43635" lon="0.07283">
        <ele>621.3</ele>
        <time>2016-07-31T11:48:44Z</time>
      </trkpt>
      <trkpt lat="42.43635" lon="0.07287">
        <ele>621.1</ele>
        <time>2016-07-31T11:48:45Z</time>
      </trkpt>
      <trkpt lat="42.43634" lon="0.07291">
        <ele>620.9</ele>
        <time>2016-07-31T11:48:46Z</time>
      </trkpt>
      <trkpt lat="42.43634" lon="0.07295">
        <ele>620.7</ele>
        <time>2016-07-31T11:48:47Z</time>
      </trkpt>
      <trkpt lat="42.43633" lon="0.07298">
        <ele>620.4</ele>
        <time>2016-07-31T11:48:48Z</time>
      </trkpt>
      <trkpt lat="42.43633" lon="0.07302">
        <ele>620.1</ele>
        <time>2016-07-31T11:48:49Z</time>
      </trkpt>
      <trkpt lat="42.43633" lon="0.07306">
        <ele>619.7</ele>
        <time>2016-07-31T11:48:50Z</time>
      </trkpt>
      <trkpt lat="42.43633" lon="0.07312">
        <ele>618.9</ele>
        <time>2016-07-31T11:48:52Z</time>
      </trkpt>
      <trkpt lat="42.43634" lon="0.07317">
        <ele>618</ele>
        <time>2016-07-31T11:48:54Z</time>
      </trkpt>
      <trkpt lat="42.43633" lon="0.07322">
        <ele>617.6</ele>
        <time>2016-07-31T11:48:56Z</time>
      </trkpt>
      <trkpt lat="42.43633" lon="0.07327">
        <ele>617.1</ele>
        <time>2016-07-31T11:48:58Z</time>
      </trkpt>
      <trkpt lat="42.43632" lon="0.07331">
        <ele>616.8</ele>
        <time>2016-07-31T11:49:00Z</time>
      </trkpt>
      <trkpt lat="42.43633" lon="0.07335">
        <ele>616.2</ele>
        <time>2016-07-31T11:49:02Z</time>
      </trkpt>
      <trkpt lat="42.43633" lon="0.07339">
        <ele>615.6</ele>
        <time>2016-07-31T11:49:03Z</time>
      </trkpt>
      <trkpt lat="42.43633" lon="0.07344">
        <ele>615.1</ele>
        <time>2016-07-31T11:49:04Z</time>
      </trkpt>
      <trkpt lat="42.43632" lon="0.07348">
        <ele>614.8</ele>
        <time>2016-07-31T11:49:05Z</time>
      </trkpt>
      <trkpt lat="42.43632" lon="0.07354">
        <ele>614.2</ele>
        <time>2016-07-31T11:49:07Z</time>
      </trkpt>
      <trkpt lat="42.43635" lon="0.07353">
        <ele>613.1</ele>
        <time>2016-07-31T11:49:10Z</time>
      </trkpt>
      <trkpt lat="42.43636" lon="0.07347">
        <ele>613.4</ele>
        <time>2016-07-31T11:49:12Z</time>
      </trkpt>
      <trkpt lat="42.43636" lon="0.07342">
        <ele>613.9</ele>
        <time>2016-07-31T11:49:14Z</time>
      </trkpt>
      <trkpt lat="42.43637" lon="0.07338">
        <ele>614.2</ele>
        <time>2016-07-31T11:49:16Z</time>
      </trkpt>
      <trkpt lat="42.43637" lon="0.07334">
        <ele>614.4</ele>
        <time>2016-07-31T11:49:18Z</time>
      </trkpt>
      <trkpt lat="42.43638" lon="0.0733">
        <ele>614.8</ele>
        <time>2016-07-31T11:49:26Z</time>
      </trkpt>
      <trkpt lat="42.43638" lon="0.07325">
        <ele>615</ele>
        <time>2016-07-31T11:49:28Z</time>
      </trkpt>
      <trkpt lat="42.4364" lon="0.07318">
        <ele>615.4</ele>
        <time>2016-07-31T11:49:30Z</time>
      </trkpt>
      <trkpt lat="42.4364" lon="0.07314">
        <ele>615.6</ele>
        <time>2016-07-31T11:49:31Z</time>
      </trkpt>
      <trkpt lat="42.43641" lon="0.07308">
        <ele>615.7</ele>
        <time>2016-07-31T11:49:33Z</time>
      </trkpt>
      <trkpt lat="42.43643" lon="0.07303">
        <ele>615.8</ele>
        <time>2016-07-31T11:49:35Z</time>
      </trkpt>
      <trkpt lat="42.43644" lon="0.07296">
        <ele>615.9</ele>
        <time>2016-07-31T11:49:37Z</time>
      </trkpt>
      <trkpt lat="42.43646" lon="0.0729">
        <ele>615.8</ele>
        <time>2016-07-31T11:49:39Z</time>
      </trkpt>
      <trkpt lat="42.43648" lon="0.07283">
        <ele>615.1</ele>
        <time>2016-07-31T11:49:41Z</time>
      </trkpt>
      <trkpt lat="42.4365" lon="0.07279">
        <ele>614.9</ele>
        <time>2016-07-31T11:49:42Z</time>
      </trkpt>
      <trkpt lat="42.43651" lon="0.07275">
        <ele>614.7</ele>
        <time>2016-07-31T11:49:43Z</time>
      </trkpt>
      <trkpt lat="42.43652" lon="0.0727">
        <ele>614.7</ele>
        <time>2016-07-31T11:49:44Z</time>
      </trkpt>
      <trkpt lat="42.43653" lon="0.07264">
        <ele>614.8</ele>
        <time>2016-07-31T11:49:45Z</time>
      </trkpt>
      <trkpt lat="42.43654" lon="0.07258">
        <ele>615</ele>
        <time>2016-07-31T11:49:46Z</time>
      </trkpt>
      <trkpt lat="42.43654" lon="0.07251">
        <ele>615.4</ele>
        <time>2016-07-31T11:49:47Z</time>
      </trkpt>
      <trkpt lat="42.43655" lon="0.07245">
        <ele>615.8</ele>
        <time>2016-07-31T11:49:48Z</time>
      </trkpt>
      <trkpt lat="42.43655" lon="0.07238">
        <ele>616.5</ele>
        <time>2016-07-31T11:49:49Z</time>
      </trkpt>
      <trkpt lat="42.43654" lon="0.07232">
        <ele>617.3</ele>
        <time>2016-07-31T11:49:50Z</time>
      </trkpt>
      <trkpt lat="42.43653" lon="0.07226">
        <ele>618.3</ele>
        <time>2016-07-31T11:49:51Z</time>
      </trkpt>
      <trkpt lat="42.43652" lon="0.0722">
        <ele>619.1</ele>
        <time>2016-07-31T11:49:52Z</time>
      </trkpt>
      <trkpt lat="42.43653" lon="0.07214">
        <ele>619.5</ele>
        <time>2016-07-31T11:49:53Z</time>
      </trkpt>
      <trkpt lat="42.43654" lon="0.07208">
        <ele>619.7</ele>
        <time>2016-07-31T11:49:54Z</time>
      </trkpt>
      <trkpt lat="42.43655" lon="0.07202">
        <ele>619.6</ele>
        <time>2016-07-31T11:49:55Z</time>
      </trkpt>
      <trkpt lat="42.43658" lon="0.07196">
        <ele>619.3</ele>
        <time>2016-07-31T11:49:56Z</time>
      </trkpt>
      <trkpt lat="42.4366" lon="0.07189">
        <ele>618.9</ele>
        <time>2016-07-31T11:49:57Z</time>
      </trkpt>
      <trkpt lat="42.43663" lon="0.07183">
        <ele>618.4</ele>
        <time>2016-07-31T11:49:58Z</time>
      </trkpt>
      <trkpt lat="42.43665" lon="0.07176">
        <ele>618</ele>
        <time>2016-07-31T11:49:59Z</time>
      </trkpt>
      <trkpt lat="42.43666" lon="0.07169">
        <ele>617.9</ele>
        <time>2016-07-31T11:50:00Z</time>
      </trkpt>
      <trkpt lat="42.43667" lon="0.07162">
        <ele>618.1</ele>
        <time>2016-07-31T11:50:01Z</time>
      </trkpt>
      <trkpt lat="42.43668" lon="0.07155">
        <ele>618.4</ele>
        <time>2016-07-31T11:50:02Z</time>
      </trkpt>
      <trkpt lat="42.43668" lon="0.07148">
        <ele>619</ele>
        <time>2016-07-31T11:50:03Z</time>
      </trkpt>
      <trkpt lat="42.43668" lon="0.07143">
        <ele>619.6</ele>
        <time>2016-07-31T11:50:04Z</time>
      </trkpt>
      <trkpt lat="42.43667" lon="0.07137">
        <ele>620.5</ele>
        <time>2016-07-31T11:50:05Z</time>
      </trkpt>
      <trkpt lat="42.43666" lon="0.07133">
        <ele>621.5</ele>
        <time>2016-07-31T11:50:06Z</time>
      </trkpt>
      <trkpt lat="42.43665" lon="0.07129">
        <ele>622.3</ele>
        <time>2016-07-31T11:50:07Z</time>
      </trkpt>
      <trkpt lat="42.43663" lon="0.07123">
        <ele>624.1</ele>
        <time>2016-07-31T11:50:09Z</time>
      </trkpt>
      <trkpt lat="42.43662" lon="0.07119">
        <ele>625.7</ele>
        <time>2016-07-31T11:50:11Z</time>
      </trkpt>
      <trkpt lat="42.4366" lon="0.07114">
        <ele>627.5</ele>
        <time>2016-07-31T11:50:13Z</time>
      </trkpt>
      <trkpt lat="42.4366" lon="0.07109">
        <ele>628.9</ele>
        <time>2016-07-31T11:50:15Z</time>
      </trkpt>
      <trkpt lat="42.4366" lon="0.07103">
        <ele>629.8</ele>
        <time>2016-07-31T11:50:17Z</time>
      </trkpt>
      <trkpt lat="42.4366" lon="0.07098">
        <ele>630.6</ele>
        <time>2016-07-31T11:50:19Z</time>
      </trkpt>
      <trkpt lat="42.4366" lon="0.07093">
        <ele>631.5</ele>
        <time>2016-07-31T11:50:21Z</time>
      </trkpt>
      <trkpt lat="42.4366" lon="0.07088">
        <ele>632.3</ele>
        <time>2016-07-31T11:50:23Z</time>
      </trkpt>
      <trkpt lat="42.43661" lon="0.07083">
        <ele>632.9</ele>
        <time>2016-07-31T11:50:25Z</time>
      </trkpt>
      <trkpt lat="42.43661" lon="0.07078">
        <ele>633.7</ele>
        <time>2016-07-31T11:50:27Z</time>
      </trkpt>
      <trkpt lat="42.43661" lon="0.07074">
        <ele>634.7</ele>
        <time>2016-07-31T11:50:29Z</time>
      </trkpt>
      <trkpt lat="42.4366" lon="0.07069">
        <ele>636</ele>
        <time>2016-07-31T11:50:31Z</time>
      </trkpt>
      <trkpt lat="42.43659" lon="0.07065">
        <ele>637.4</ele>
        <time>2016-07-31T11:50:33Z</time>
      </trkpt>
      <trkpt lat="42.43659" lon="0.0706">
        <ele>638.7</ele>
        <time>2016-07-31T11:50:35Z</time>
      </trkpt>
      <trkpt lat="42.43659" lon="0.07055">
        <ele>639.5</ele>
        <time>2016-07-31T11:50:37Z</time>
      </trkpt>
      <trkpt lat="42.4366" lon="0.0705">
        <ele>639.7</ele>
        <time>2016-07-31T11:50:39Z</time>
      </trkpt>
      <trkpt lat="42.43661" lon="0.07045">
        <ele>640.2</ele>
        <time>2016-07-31T11:50:41Z</time>
      </trkpt>
      <trkpt lat="42.43661" lon="0.0704">
        <ele>640.4</ele>
        <time>2016-07-31T11:50:43Z</time>
      </trkpt>
      <trkpt lat="42.43662" lon="0.07035">
        <ele>640.4</ele>
        <time>2016-07-31T11:50:45Z</time>
      </trkpt>
      <trkpt lat="42.43663" lon="0.07031">
        <ele>640.2</ele>
        <time>2016-07-31T11:50:47Z</time>
      </trkpt>
      <trkpt lat="42.43665" lon="0.07024">
        <ele>640</ele>
        <time>2016-07-31T11:50:49Z</time>
      </trkpt>
      <trkpt lat="42.43666" lon="0.0702">
        <ele>639.9</ele>
        <time>2016-07-31T11:50:50Z</time>
      </trkpt>
      <trkpt lat="42.43667" lon="0.07014">
        <ele>639.7</ele>
        <time>2016-07-31T11:50:51Z</time>
      </trkpt>
      <trkpt lat="42.43667" lon="0.07009">
        <ele>639.8</ele>
        <time>2016-07-31T11:50:52Z</time>
      </trkpt>
      <trkpt lat="42.43668" lon="0.07004">
        <ele>639.8</ele>
        <time>2016-07-31T11:50:53Z</time>
      </trkpt>
      <trkpt lat="42.43669" lon="0.06999">
        <ele>640</ele>
        <time>2016-07-31T11:50:54Z</time>
      </trkpt>
      <trkpt lat="42.43669" lon="0.06994">
        <ele>640</ele>
        <time>2016-07-31T11:50:55Z</time>
      </trkpt>
      <trkpt lat="42.4367" lon="0.0699">
        <ele>640.1</ele>
        <time>2016-07-31T11:50:56Z</time>
      </trkpt>
      <trkpt lat="42.4367" lon="0.06986">
        <ele>640.4</ele>
        <time>2016-07-31T11:50:57Z</time>
      </trkpt>
      <trkpt lat="42.4367" lon="0.06979">
        <ele>641.1</ele>
        <time>2016-07-31T11:50:59Z</time>
      </trkpt>
      <trkpt lat="42.4367" lon="0.06974">
        <ele>641.9</ele>
        <time>2016-07-31T11:51:01Z</time>
      </trkpt>
      <trkpt lat="42.43669" lon="0.0697">
        <ele>642.7</ele>
        <time>2016-07-31T11:51:03Z</time>
      </trkpt>
      <trkpt lat="42.43669" lon="0.06966">
        <ele>643.1</ele>
        <time>2016-07-31T11:51:05Z</time>
      </trkpt>
      <trkpt lat="42.4367" lon="0.06961">
        <ele>643.4</ele>
        <time>2016-07-31T11:51:07Z</time>
      </trkpt>
      <trkpt lat="42.4367" lon="0.06957">
        <ele>643.3</ele>
        <time>2016-07-31T11:51:09Z</time>
      </trkpt>
      <trkpt lat="42.43672" lon="0.06952">
        <ele>642.5</ele>
        <time>2016-07-31T11:51:11Z</time>
      </trkpt>
      <trkpt lat="42.43673" lon="0.06947">
        <ele>642</ele>
        <time>2016-07-31T11:51:13Z</time>
      </trkpt>
      <trkpt lat="42.43673" lon="0.06944">
        <ele>641.7</ele>
        <time>2016-07-31T11:51:15Z</time>
      </trkpt>
      <trkpt lat="42.43674" lon="0.06938">
        <ele>641.3</ele>
        <time>2016-07-31T11:51:18Z</time>
      </trkpt>
      <trkpt lat="42.43675" lon="0.06934">
        <ele>640.8</ele>
        <time>2016-07-31T11:51:20Z</time>
      </trkpt>
      <trkpt lat="42.43677" lon="0.06926">
        <ele>640.1</ele>
        <time>2016-07-31T11:51:22Z</time>
      </trkpt>
      <trkpt lat="42.43678" lon="0.06921">
        <ele>639.5</ele>
        <time>2016-07-31T11:51:23Z</time>
      </trkpt>
      <trkpt lat="42.43679" lon="0.06916">
        <ele>638.9</ele>
        <time>2016-07-31T11:51:24Z</time>
      </trkpt>
      <trkpt lat="42.43681" lon="0.0691">
        <ele>638</ele>
        <time>2016-07-31T11:51:25Z</time>
      </trkpt>
      <trkpt lat="42.43682" lon="0.06905">
        <ele>637.5</ele>
        <time>2016-07-31T11:51:26Z</time>
      </trkpt>
      <trkpt lat="42.43683" lon="0.06899">
        <ele>636.9</ele>
        <time>2016-07-31T11:51:27Z</time>
      </trkpt>
      <trkpt lat="42.43686" lon="0.06892">
        <ele>635.5</ele>
        <time>2016-07-31T11:51:28Z</time>
      </trkpt>
      <trkpt lat="42.43689" lon="0.06886">
        <ele>633.5</ele>
        <time>2016-07-31T11:51:29Z</time>
      </trkpt>
      <trkpt lat="42.43694" lon="0.06879">
        <ele>630.6</ele>
        <time>2016-07-31T11:51:30Z</time>
      </trkpt>
      <trkpt lat="42.43699" lon="0.06871">
        <ele>627.5</ele>
        <time>2016-07-31T11:51:31Z</time>
      </trkpt>
      <trkpt lat="42.43704" lon="0.06864">
        <ele>624.6</ele>
        <time>2016-07-31T11:51:32Z</time>
      </trkpt>
      <trkpt lat="42.43708" lon="0.06856">
        <ele>622.3</ele>
        <time>2016-07-31T11:51:33Z</time>
      </trkpt>
      <trkpt lat="42.4371" lon="0.06847">
        <ele>621.3</ele>
        <time>2016-07-31T11:51:34Z</time>
      </trkpt>
      <trkpt lat="42.43713" lon="0.06841">
        <ele>620.5</ele>
        <time>2016-07-31T11:51:35Z</time>
      </trkpt>
      <trkpt lat="42.43714" lon="0.06836">
        <ele>620.2</ele>
        <time>2016-07-31T11:51:36Z</time>
      </trkpt>
      <trkpt lat="42.43716" lon="0.06832">
        <ele>619.8</ele>
        <time>2016-07-31T11:51:37Z</time>
      </trkpt>
      <trkpt lat="42.43718" lon="0.06828">
        <ele>619.4</ele>
        <time>2016-07-31T11:51:38Z</time>
      </trkpt>
      <trkpt lat="42.4372" lon="0.06824">
        <ele>618.8</ele>
        <time>2016-07-31T11:51:39Z</time>
      </trkpt>
      <trkpt lat="42.43722" lon="0.0682">
        <ele>618.1</ele>
        <time>2016-07-31T11:51:40Z</time>
      </trkpt>
      <trkpt lat="42.43725" lon="0.06816">
        <ele>617.5</ele>
        <time>2016-07-31T11:51:41Z</time>
      </trkpt>
      <trkpt lat="42.43727" lon="0.06812">
        <ele>616.8</ele>
        <time>2016-07-31T11:51:42Z</time>
      </trkpt>
      <trkpt lat="42.4373" lon="0.06807">
        <ele>616.1</ele>
        <time>2016-07-31T11:51:43Z</time>
      </trkpt>
      <trkpt lat="42.43734" lon="0.06802">
        <ele>615.3</ele>
        <time>2016-07-31T11:51:44Z</time>
      </trkpt>
      <trkpt lat="42.43738" lon="0.06797">
        <ele>614.5</ele>
        <time>2016-07-31T11:51:45Z</time>
      </trkpt>
      <trkpt lat="42.43742" lon="0.06792">
        <ele>613.6</ele>
        <time>2016-07-31T11:51:46Z</time>
      </trkpt>
      <trkpt lat="42.43746" lon="0.06787">
        <ele>612.9</ele>
        <time>2016-07-31T11:51:47Z</time>
      </trkpt>
      <trkpt lat="42.4375" lon="0.06782">
        <ele>612.1</ele>
        <time>2016-07-31T11:51:48Z</time>
      </trkpt>
      <trkpt lat="42.43755" lon="0.06779">
        <ele>611.2</ele>
        <time>2016-07-31T11:51:49Z</time>
      </trkpt>
      <trkpt lat="42.4376" lon="0.06775">
        <ele>610.2</ele>
        <time>2016-07-31T11:51:50Z</time>
      </trkpt>
      <trkpt lat="42.43765" lon="0.06772">
        <ele>609</ele>
        <time>2016-07-31T11:51:51Z</time>
      </trkpt>
      <trkpt lat="42.4377" lon="0.0677">
        <ele>607.7</ele>
        <time>2016-07-31T11:51:52Z</time>
      </trkpt>
      <trkpt lat="42.43775" lon="0.06768">
        <ele>606.3</ele>
        <time>2016-07-31T11:51:53Z</time>
      </trkpt>
      <trkpt lat="42.4378" lon="0.06767">
        <ele>604.8</ele>
        <time>2016-07-31T11:51:54Z</time>
      </trkpt>
      <trkpt lat="42.43786" lon="0.06765">
        <ele>603.4</ele>
        <time>2016-07-31T11:51:55Z</time>
      </trkpt>
      <trkpt lat="42.4379" lon="0.06762">
        <ele>602.4</ele>
        <time>2016-07-31T11:51:56Z</time>
      </trkpt>
      <trkpt lat="42.43794" lon="0.06757">
        <ele>602.3</ele>
        <time>2016-07-31T11:51:57Z</time>
      </trkpt>
      <trkpt lat="42.43797" lon="0.0675">
        <ele>602.9</ele>
        <time>2016-07-31T11:51:58Z</time>
      </trkpt>
      <trkpt lat="42.43798" lon="0.06743">
        <ele>603.7</ele>
        <time>2016-07-31T11:51:59Z</time>
      </trkpt>
      <trkpt lat="42.43799" lon="0.06735">
        <ele>604.6</ele>
        <time>2016-07-31T11:52:00Z</time>
      </trkpt>
      <trkpt lat="42.438" lon="0.06727">
        <ele>605.4</ele>
        <time>2016-07-31T11:52:01Z</time>
      </trkpt>
      <trkpt lat="42.438" lon="0.06721">
        <ele>606.1</ele>
        <time>2016-07-31T11:52:02Z</time>
      </trkpt>
      <trkpt lat="42.43801" lon="0.06716">
        <ele>606.7</ele>
        <time>2016-07-31T11:52:03Z</time>
      </trkpt>
      <trkpt lat="42.43803" lon="0.06711">
        <ele>607</ele>
        <time>2016-07-31T11:52:04Z</time>
      </trkpt>
      <trkpt lat="42.43805" lon="0.06707">
        <ele>607.2</ele>
        <time>2016-07-31T11:52:05Z</time>
      </trkpt>
      <trkpt lat="42.43806" lon="0.06705">
        <ele>607.1</ele>
        <time>2016-07-31T11:52:06Z</time>
      </trkpt>
      <trkpt lat="42.43811" lon="0.06702">
        <ele>606.7</ele>
        <time>2016-07-31T11:52:08Z</time>
      </trkpt>
      <trkpt lat="42.43814" lon="0.06706">
        <ele>605.9</ele>
        <time>2016-07-31T11:52:09Z</time>
      </trkpt>
      <trkpt lat="42.43818" lon="0.06712">
        <ele>604.8</ele>
        <time>2016-07-31T11:52:10Z</time>
      </trkpt>
      <trkpt lat="42.43821" lon="0.06719">
        <ele>603.5</ele>
        <time>2016-07-31T11:52:11Z</time>
      </trkpt>
      <trkpt lat="42.43824" lon="0.06727">
        <ele>602.2</ele>
        <time>2016-07-31T11:52:12Z</time>
      </trkpt>
      <trkpt lat="42.43828" lon="0.06732">
        <ele>601.2</ele>
        <time>2016-07-31T11:52:13Z</time>
      </trkpt>
      <trkpt lat="42.43831" lon="0.06736">
        <ele>600.3</ele>
        <time>2016-07-31T11:52:14Z</time>
      </trkpt>
      <trkpt lat="42.43835" lon="0.06739">
        <ele>599.5</ele>
        <time>2016-07-31T11:52:15Z</time>
      </trkpt>
      <trkpt lat="42.4384" lon="0.0674">
        <ele>598.8</ele>
        <time>2016-07-31T11:52:16Z</time>
      </trkpt>
      <trkpt lat="42.43845" lon="0.0674">
        <ele>598.2</ele>
        <time>2016-07-31T11:52:17Z</time>
      </trkpt>
      <trkpt lat="42.4385" lon="0.06738">
        <ele>597.7</ele>
        <time>2016-07-31T11:52:18Z</time>
      </trkpt>
      <trkpt lat="42.43855" lon="0.06737">
        <ele>597.2</ele>
        <time>2016-07-31T11:52:19Z</time>
      </trkpt>
      <trkpt lat="42.4386" lon="0.06736">
        <ele>596.7</ele>
        <time>2016-07-31T11:52:20Z</time>
      </trkpt>
      <trkpt lat="42.43865" lon="0.06734">
        <ele>596.1</ele>
        <time>2016-07-31T11:52:21Z</time>
      </trkpt>
      <trkpt lat="42.4387" lon="0.06733">
        <ele>595.6</ele>
        <time>2016-07-31T11:52:22Z</time>
      </trkpt>
      <trkpt lat="42.43876" lon="0.06731">
        <ele>595.1</ele>
        <time>2016-07-31T11:52:23Z</time>
      </trkpt>
      <trkpt lat="42.43882" lon="0.06729">
        <ele>595.3</ele>
        <time>2016-07-31T11:52:24Z</time>
      </trkpt>
      <trkpt lat="42.43888" lon="0.06727">
        <ele>595.5</ele>
        <time>2016-07-31T11:52:25Z</time>
      </trkpt>
      <trkpt lat="42.43893" lon="0.06726">
        <ele>595.7</ele>
        <time>2016-07-31T11:52:26Z</time>
      </trkpt>
      <trkpt lat="42.43899" lon="0.06725">
        <ele>595.9</ele>
        <time>2016-07-31T11:52:27Z</time>
      </trkpt>
      <trkpt lat="42.43905" lon="0.06724">
        <ele>596.1</ele>
        <time>2016-07-31T11:52:28Z</time>
      </trkpt>
      <trkpt lat="42.43911" lon="0.06724">
        <ele>596.1</ele>
        <time>2016-07-31T11:52:29Z</time>
      </trkpt>
      <trkpt lat="42.43917" lon="0.06724">
        <ele>596.2</ele>
        <time>2016-07-31T11:52:30Z</time>
      </trkpt>
      <trkpt lat="42.43922" lon="0.06723">
        <ele>596.4</ele>
        <time>2016-07-31T11:52:31Z</time>
      </trkpt>
      <trkpt lat="42.43928" lon="0.06721">
        <ele>596.7</ele>
        <time>2016-07-31T11:52:32Z</time>
      </trkpt>
      <trkpt lat="42.43934" lon="0.06719">
        <ele>597</ele>
        <time>2016-07-31T11:52:33Z</time>
      </trkpt>
      <trkpt lat="42.43939" lon="0.06718">
        <ele>597.2</ele>
        <time>2016-07-31T11:52:34Z</time>
      </trkpt>
      <trkpt lat="42.43944" lon="0.06716">
        <ele>597.6</ele>
        <time>2016-07-31T11:52:35Z</time>
      </trkpt>
      <trkpt lat="42.43949" lon="0.06715">
        <ele>597.9</ele>
        <time>2016-07-31T11:52:36Z</time>
      </trkpt>
      <trkpt lat="42.43954" lon="0.06713">
        <ele>598.3</ele>
        <time>2016-07-31T11:52:37Z</time>
      </trkpt>
      <trkpt lat="42.43959" lon="0.0671">
        <ele>598.7</ele>
        <time>2016-07-31T11:52:38Z</time>
      </trkpt>
      <trkpt lat="42.43964" lon="0.0671">
        <ele>598.6</ele>
        <time>2016-07-31T11:52:39Z</time>
      </trkpt>
      <trkpt lat="42.43968" lon="0.06707">
        <ele>598.7</ele>
        <time>2016-07-31T11:52:40Z</time>
      </trkpt>
      <trkpt lat="42.43973" lon="0.06705">
        <ele>598.9</ele>
        <time>2016-07-31T11:52:41Z</time>
      </trkpt>
      <trkpt lat="42.43976" lon="0.06702">
        <ele>599</ele>
        <time>2016-07-31T11:52:42Z</time>
      </trkpt>
      <trkpt lat="42.4398" lon="0.067">
        <ele>599.1</ele>
        <time>2016-07-31T11:52:43Z</time>
      </trkpt>
      <trkpt lat="42.43983" lon="0.06694">
        <ele>599.6</ele>
        <time>2016-07-31T11:52:44Z</time>
      </trkpt>
      <trkpt lat="42.43987" lon="0.06692">
        <ele>599.7</ele>
        <time>2016-07-31T11:52:45Z</time>
      </trkpt>
      <trkpt lat="42.4399" lon="0.0669">
        <ele>599.7</ele>
        <time>2016-07-31T11:52:46Z</time>
      </trkpt>
      <trkpt lat="42.43993" lon="0.06688">
        <ele>599.9</ele>
        <time>2016-07-31T11:52:47Z</time>
      </trkpt>
      <trkpt lat="42.43995" lon="0.06686">
        <ele>600</ele>
        <time>2016-07-31T11:52:48Z</time>
      </trkpt>
      <trkpt lat="42.43998" lon="0.06684">
        <ele>600.1</ele>
        <time>2016-07-31T11:52:49Z</time>
      </trkpt>
      <trkpt lat="42.44001" lon="0.06683">
        <ele>600</ele>
        <time>2016-07-31T11:52:50Z</time>
      </trkpt>
      <trkpt lat="42.44004" lon="0.06682">
        <ele>600</ele>
        <time>2016-07-31T11:52:51Z</time>
      </trkpt>
      <trkpt lat="42.44009" lon="0.06682">
        <ele>599.8</ele>
        <time>2016-07-31T11:52:53Z</time>
      </trkpt>
      <trkpt lat="42.44012" lon="0.06682">
        <ele>599.7</ele>
        <time>2016-07-31T11:52:54Z</time>
      </trkpt>
      <trkpt lat="42.44015" lon="0.06683">
        <ele>599.4</ele>
        <time>2016-07-31T11:52:55Z</time>
      </trkpt>
      <trkpt lat="42.44019" lon="0.06685">
        <ele>599.2</ele>
        <time>2016-07-31T11:52:56Z</time>
      </trkpt>
      <trkpt lat="42.44023" lon="0.06686">
        <ele>598.9</ele>
        <time>2016-07-31T11:52:57Z</time>
      </trkpt>
      <trkpt lat="42.44029" lon="0.06687">
        <ele>598.6</ele>
        <time>2016-07-31T11:52:58Z</time>
      </trkpt>
      <trkpt lat="42.44035" lon="0.06686">
        <ele>598.4</ele>
        <time>2016-07-31T11:52:59Z</time>
      </trkpt>
      <trkpt lat="42.44042" lon="0.06688">
        <ele>598</ele>
        <time>2016-07-31T11:53:00Z</time>
      </trkpt>
      <trkpt lat="42.44049" lon="0.06688">
        <ele>597.8</ele>
        <time>2016-07-31T11:53:01Z</time>
      </trkpt>
      <trkpt lat="42.44055" lon="0.06687">
        <ele>597.8</ele>
        <time>2016-07-31T11:53:02Z</time>
      </trkpt>
      <trkpt lat="42.4406" lon="0.06687">
        <ele>597.7</ele>
        <time>2016-07-31T11:53:03Z</time>
      </trkpt>
      <trkpt lat="42.44066" lon="0.06687">
        <ele>597.7</ele>
        <time>2016-07-31T11:53:04Z</time>
      </trkpt>
      <trkpt lat="42.4407" lon="0.06687">
        <ele>597.6</ele>
        <time>2016-07-31T11:53:05Z</time>
      </trkpt>
      <trkpt lat="42.44074" lon="0.06686">
        <ele>597.6</ele>
        <time>2016-07-31T11:53:06Z</time>
      </trkpt>
      <trkpt lat="42.44078" lon="0.06685">
        <ele>597.7</ele>
        <time>2016-07-31T11:53:07Z</time>
      </trkpt>
      <trkpt lat="42.44082" lon="0.06685">
        <ele>597.6</ele>
        <time>2016-07-31T11:53:08Z</time>
      </trkpt>
      <trkpt lat="42.44085" lon="0.06685">
        <ele>597.6</ele>
        <time>2016-07-31T11:53:09Z</time>
      </trkpt>
      <trkpt lat="42.44088" lon="0.06686">
        <ele>597.4</ele>
        <time>2016-07-31T11:53:10Z</time>
      </trkpt>
      <trkpt lat="42.44091" lon="0.06686">
        <ele>597.4</ele>
        <time>2016-07-31T11:53:11Z</time>
      </trkpt>
      <trkpt lat="42.44094" lon="0.06686">
        <ele>597.4</ele>
        <time>2016-07-31T11:53:12Z</time>
      </trkpt>
      <trkpt lat="42.44097" lon="0.06685">
        <ele>597.4</ele>
        <time>2016-07-31T11:53:13Z</time>
      </trkpt>
      <trkpt lat="42.44101" lon="0.06685">
        <ele>597.3</ele>
        <time>2016-07-31T11:53:14Z</time>
      </trkpt>
      <trkpt lat="42.44104" lon="0.06686">
        <ele>597.2</ele>
        <time>2016-07-31T11:53:15Z</time>
      </trkpt>
      <trkpt lat="42.44108" lon="0.06686">
        <ele>597.1</ele>
        <time>2016-07-31T11:53:16Z</time>
      </trkpt>
      <trkpt lat="42.44111" lon="0.06687">
        <ele>597</ele>
        <time>2016-07-31T11:53:17Z</time>
      </trkpt>
      <trkpt lat="42.44114" lon="0.06687">
        <ele>597</ele>
        <time>2016-07-31T11:53:18Z</time>
      </trkpt>
      <trkpt lat="42.44118" lon="0.06687">
        <ele>596.9</ele>
        <time>2016-07-31T11:53:19Z</time>
      </trkpt>
      <trkpt lat="42.44122" lon="0.06687">
        <ele>596.8</ele>
        <time>2016-07-31T11:53:20Z</time>
      </trkpt>
      <trkpt lat="42.44125" lon="0.06687">
        <ele>596.8</ele>
        <time>2016-07-31T11:53:21Z</time>
      </trkpt>
      <trkpt lat="42.44129" lon="0.06687">
        <ele>596.8</ele>
        <time>2016-07-31T11:53:22Z</time>
      </trkpt>
      <trkpt lat="42.44132" lon="0.06686">
        <ele>596.9</ele>
        <time>2016-07-31T11:53:23Z</time>
      </trkpt>
      <trkpt lat="42.44136" lon="0.06685">
        <ele>597</ele>
        <time>2016-07-31T11:53:24Z</time>
      </trkpt>
      <trkpt lat="42.44139" lon="0.06684">
        <ele>597</ele>
        <time>2016-07-31T11:53:25Z</time>
      </trkpt>
      <trkpt lat="42.44143" lon="0.06683">
        <ele>597.1</ele>
        <time>2016-07-31T11:53:26Z</time>
      </trkpt>
      <trkpt lat="42.44146" lon="0.06683">
        <ele>597.2</ele>
        <time>2016-07-31T11:53:27Z</time>
      </trkpt>
      <trkpt lat="42.44149" lon="0.06682">
        <ele>597.2</ele>
        <time>2016-07-31T11:53:28Z</time>
      </trkpt>
      <trkpt lat="42.44153" lon="0.06682">
        <ele>597.3</ele>
        <time>2016-07-31T11:53:29Z</time>
      </trkpt>
      <trkpt lat="42.44156" lon="0.06681">
        <ele>597.3</ele>
        <time>2016-07-31T11:53:30Z</time>
      </trkpt>
      <trkpt lat="42.4416" lon="0.06681">
        <ele>597.3</ele>
        <time>2016-07-31T11:53:31Z</time>
      </trkpt>
      <trkpt lat="42.44164" lon="0.0668">
        <ele>597.3</ele>
        <time>2016-07-31T11:53:32Z</time>
      </trkpt>
      <trkpt lat="42.44169" lon="0.0668">
        <ele>597.4</ele>
        <time>2016-07-31T11:53:33Z</time>
      </trkpt>
      <trkpt lat="42.44174" lon="0.06678">
        <ele>597.5</ele>
        <time>2016-07-31T11:53:34Z</time>
      </trkpt>
      <trkpt lat="42.44178" lon="0.06676">
        <ele>597.6</ele>
        <time>2016-07-31T11:53:35Z</time>
      </trkpt>
      <trkpt lat="42.44183" lon="0.06675">
        <ele>597.7</ele>
        <time>2016-07-31T11:53:36Z</time>
      </trkpt>
      <trkpt lat="42.44187" lon="0.06674">
        <ele>597.7</ele>
        <time>2016-07-31T11:53:37Z</time>
      </trkpt>
      <trkpt lat="42.44192" lon="0.06673">
        <ele>597.7</ele>
        <time>2016-07-31T11:53:38Z</time>
      </trkpt>
      <trkpt lat="42.44197" lon="0.06672">
        <ele>597.8</ele>
        <time>2016-07-31T11:53:39Z</time>
      </trkpt>
      <trkpt lat="42.44202" lon="0.06672">
        <ele>597.8</ele>
        <time>2016-07-31T11:53:40Z</time>
      </trkpt>
      <trkpt lat="42.44207" lon="0.06671">
        <ele>597.8</ele>
        <time>2016-07-31T11:53:41Z</time>
      </trkpt>
      <trkpt lat="42.44212" lon="0.06669">
        <ele>597.9</ele>
        <time>2016-07-31T11:53:42Z</time>
      </trkpt>
      <trkpt lat="42.44217" lon="0.06667">
        <ele>598</ele>
        <time>2016-07-31T11:53:43Z</time>
      </trkpt>
      <trkpt lat="42.44221" lon="0.06664">
        <ele>598.1</ele>
        <time>2016-07-31T11:53:44Z</time>
      </trkpt>
      <trkpt lat="42.44225" lon="0.0666">
        <ele>598.3</ele>
        <time>2016-07-31T11:53:45Z</time>
      </trkpt>
      <trkpt lat="42.44228" lon="0.06657">
        <ele>598.4</ele>
        <time>2016-07-31T11:53:46Z</time>
      </trkpt>
      <trkpt lat="42.44232" lon="0.06654">
        <ele>598.6</ele>
        <time>2016-07-31T11:53:47Z</time>
      </trkpt>
      <trkpt lat="42.44235" lon="0.0665">
        <ele>598.8</ele>
        <time>2016-07-31T11:53:48Z</time>
      </trkpt>
      <trkpt lat="42.44239" lon="0.06646">
        <ele>599.1</ele>
        <time>2016-07-31T11:53:49Z</time>
      </trkpt>
      <trkpt lat="42.44242" lon="0.06643">
        <ele>599.3</ele>
        <time>2016-07-31T11:53:50Z</time>
      </trkpt>
      <trkpt lat="42.44246" lon="0.06639">
        <ele>599.6</ele>
        <time>2016-07-31T11:53:51Z</time>
      </trkpt>
      <trkpt lat="42.44249" lon="0.06635">
        <ele>599.8</ele>
        <time>2016-07-31T11:53:52Z</time>
      </trkpt>
      <trkpt lat="42.44253" lon="0.06632">
        <ele>600.1</ele>
        <time>2016-07-31T11:53:53Z</time>
      </trkpt>
      <trkpt lat="42.44256" lon="0.06628">
        <ele>600.4</ele>
        <time>2016-07-31T11:53:54Z</time>
      </trkpt>
      <trkpt lat="42.44259" lon="0.06624">
        <ele>600.7</ele>
        <time>2016-07-31T11:53:55Z</time>
      </trkpt>
      <trkpt lat="42.44263" lon="0.0662">
        <ele>601.1</ele>
        <time>2016-07-31T11:53:56Z</time>
      </trkpt>
      <trkpt lat="42.44267" lon="0.06616">
        <ele>601.5</ele>
        <time>2016-07-31T11:53:57Z</time>
      </trkpt>
      <trkpt lat="42.4427" lon="0.06613">
        <ele>601.8</ele>
        <time>2016-07-31T11:53:58Z</time>
      </trkpt>
      <trkpt lat="42.44274" lon="0.06609">
        <ele>602.2</ele>
        <time>2016-07-31T11:53:59Z</time>
      </trkpt>
      <trkpt lat="42.44278" lon="0.06606">
        <ele>602.5</ele>
        <time>2016-07-31T11:54:00Z</time>
      </trkpt>
      <trkpt lat="42.44282" lon="0.06602">
        <ele>602.9</ele>
        <time>2016-07-31T11:54:01Z</time>
      </trkpt>
      <trkpt lat="42.44286" lon="0.06598">
        <ele>603.2</ele>
        <time>2016-07-31T11:54:02Z</time>
      </trkpt>
      <trkpt lat="42.4429" lon="0.06594">
        <ele>603.6</ele>
        <time>2016-07-31T11:54:03Z</time>
      </trkpt>
      <trkpt lat="42.44294" lon="0.0659">
        <ele>603.8</ele>
        <time>2016-07-31T11:54:04Z</time>
      </trkpt>
      <trkpt lat="42.44299" lon="0.06586">
        <ele>603.8</ele>
        <time>2016-07-31T11:54:05Z</time>
      </trkpt>
      <trkpt lat="42.44304" lon="0.06581">
        <ele>603.9</ele>
        <time>2016-07-31T11:54:06Z</time>
      </trkpt>
      <trkpt lat="42.44308" lon="0.06577">
        <ele>603.9</ele>
        <time>2016-07-31T11:54:07Z</time>
      </trkpt>
      <trkpt lat="42.44313" lon="0.06573">
        <ele>604</ele>
        <time>2016-07-31T11:54:08Z</time>
      </trkpt>
      <trkpt lat="42.44317" lon="0.06569">
        <ele>604</ele>
        <time>2016-07-31T11:54:09Z</time>
      </trkpt>
      <trkpt lat="42.4432" lon="0.06567">
        <ele>603.9</ele>
        <time>2016-07-31T11:54:10Z</time>
      </trkpt>
      <trkpt lat="42.44323" lon="0.06565">
        <ele>603.8</ele>
        <time>2016-07-31T11:54:11Z</time>
      </trkpt>
      <trkpt lat="42.44327" lon="0.06565">
        <ele>603.7</ele>
        <time>2016-07-31T11:54:12Z</time>
      </trkpt>
      <trkpt lat="42.4433" lon="0.06565">
        <ele>603.5</ele>
        <time>2016-07-31T11:54:13Z</time>
      </trkpt>
      <trkpt lat="42.44334" lon="0.06565">
        <ele>603.2</ele>
        <time>2016-07-31T11:54:15Z</time>
      </trkpt>
      <trkpt lat="42.44337" lon="0.06567">
        <ele>602.8</ele>
        <time>2016-07-31T11:54:29Z</time>
      </trkpt>
    </trkseg>
  </trk>
  <trk>
    <name><![CDATA[Zona Zéro 2018 #1 à suivre ☀️😊]]></name>
    <extensions>
      <line xmlns="http://www.topografix.com/GPX/gpx_style/0/2">
        <color>00FFFF</color>
        <width>4</width>
      </line>
    </extensions>
    <trkseg>
      <trkpt lat="42.37379" lon="0.27078">
        <ele>636.4</ele>
        <time>2018-05-06T07:41:29Z</time>
      </trkpt>
      <trkpt lat="42.3736" lon="0.27068">
        <ele>636.6</ele>
        <time>2018-05-06T07:41:34Z</time>
      </trkpt>
      <trkpt lat="42.37341" lon="0.27062">
        <ele>636.6</ele>
        <time>2018-05-06T07:41:41Z</time>
      </trkpt>
      <trkpt lat="42.37323" lon="0.27055">
        <ele>637</ele>
        <time>2018-05-06T07:41:48Z</time>
      </trkpt>
      <trkpt lat="42.37304" lon="0.2705">
        <ele>637</ele>
        <time>2018-05-06T07:41:53Z</time>
      </trkpt>
      <trkpt lat="42.37286" lon="0.27052">
        <ele>636.7</ele>
        <time>2018-05-06T07:41:57Z</time>
      </trkpt>
      <trkpt lat="42.37266" lon="0.27054">
        <ele>636.5</ele>
        <time>2018-05-06T07:42:01Z</time>
      </trkpt>
      <trkpt lat="42.37245" lon="0.27058">
        <ele>636.3</ele>
        <time>2018-05-06T07:42:05Z</time>
      </trkpt>
      <trkpt lat="42.37225" lon="0.27061">
        <ele>636.1</ele>
        <time>2018-05-06T07:42:09Z</time>
      </trkpt>
      <trkpt lat="42.37206" lon="0.27064">
        <ele>635.6</ele>
        <time>2018-05-06T07:42:13Z</time>
      </trkpt>
      <trkpt lat="42.37186" lon="0.27066">
        <ele>635.2</ele>
        <time>2018-05-06T07:42:17Z</time>
      </trkpt>
      <trkpt lat="42.37165" lon="0.27071">
        <ele>635.2</ele>
        <time>2018-05-06T07:42:21Z</time>
      </trkpt>
      <trkpt lat="42.37142" lon="0.27074">
        <ele>635.1</ele>
        <time>2018-05-06T07:42:25Z</time>
      </trkpt>
      <trkpt lat="42.37119" lon="0.27077">
        <ele>635</ele>
        <time>2018-05-06T07:42:29Z</time>
      </trkpt>
      <trkpt lat="42.37098" lon="0.2708">
        <ele>634.8</ele>
        <time>2018-05-06T07:42:33Z</time>
      </trkpt>
      <trkpt lat="42.37074" lon="0.27083">
        <ele>634.4</ele>
        <time>2018-05-06T07:42:37Z</time>
      </trkpt>
      <trkpt lat="42.37051" lon="0.27087">
        <ele>634</ele>
        <time>2018-05-06T07:42:41Z</time>
      </trkpt>
      <trkpt lat="42.37027" lon="0.27091">
        <ele>633.2</ele>
        <time>2018-05-06T07:42:45Z</time>
      </trkpt>
      <trkpt lat="42.37004" lon="0.27095">
        <ele>632.1</ele>
        <time>2018-05-06T07:42:49Z</time>
      </trkpt>
      <trkpt lat="42.36981" lon="0.271">
        <ele>631</ele>
        <time>2018-05-06T07:42:53Z</time>
      </trkpt>
      <trkpt lat="42.36957" lon="0.27102">
        <ele>631</ele>
        <time>2018-05-06T07:42:57Z</time>
      </trkpt>
      <trkpt lat="42.36935" lon="0.27096">
        <ele>630.8</ele>
        <time>2018-05-06T07:43:01Z</time>
      </trkpt>
      <trkpt lat="42.36913" lon="0.27083">
        <ele>630.5</ele>
        <time>2018-05-06T07:43:05Z</time>
      </trkpt>
      <trkpt lat="42.36892" lon="0.27071">
        <ele>630.1</ele>
        <time>2018-05-06T07:43:09Z</time>
      </trkpt>
      <trkpt lat="42.36888" lon="0.27067">
        <ele>630</ele>
        <time>2018-05-06T07:43:10Z</time>
      </trkpt>
      <trkpt lat="42.36888" lon="0.27041">
        <ele>630.4</ele>
        <time>2018-05-06T07:43:14Z</time>
      </trkpt>
      <trkpt lat="42.36896" lon="0.27018">
        <ele>631.2</ele>
        <time>2018-05-06T07:43:18Z</time>
      </trkpt>
      <trkpt lat="42.36903" lon="0.26994">
        <ele>631.8</ele>
        <time>2018-05-06T07:43:22Z</time>
      </trkpt>
      <trkpt lat="42.36911" lon="0.26967">
        <ele>632.8</ele>
        <time>2018-05-06T07:43:27Z</time>
      </trkpt>
      <trkpt lat="42.36918" lon="0.2694">
        <ele>633.7</ele>
        <time>2018-05-06T07:43:32Z</time>
      </trkpt>
      <trkpt lat="42.36921" lon="0.26923">
        <ele>634</ele>
        <time>2018-05-06T07:43:36Z</time>
      </trkpt>
      <trkpt lat="42.36902" lon="0.26916">
        <ele>633.7</ele>
        <time>2018-05-06T07:43:41Z</time>
      </trkpt>
      <trkpt lat="42.36881" lon="0.26919">
        <ele>633.2</ele>
        <time>2018-05-06T07:43:45Z</time>
      </trkpt>
      <trkpt lat="42.3686" lon="0.26922">
        <ele>632.6</ele>
        <time>2018-05-06T07:43:49Z</time>
      </trkpt>
      <trkpt lat="42.36837" lon="0.26927">
        <ele>631.9</ele>
        <time>2018-05-06T07:43:53Z</time>
      </trkpt>
      <trkpt lat="42.36815" lon="0.26932">
        <ele>631.1</ele>
        <time>2018-05-06T07:43:57Z</time>
      </trkpt>
      <trkpt lat="42.36803" lon="0.26933">
        <ele>630.8</ele>
        <time>2018-05-06T07:43:59Z</time>
      </trkpt>
      <trkpt lat="42.36784" lon="0.26922">
        <ele>631</ele>
        <time>2018-05-06T07:44:03Z</time>
      </trkpt>
      <trkpt lat="42.36776" lon="0.26912">
        <ele>631.6</ele>
        <time>2018-05-06T07:44:05Z</time>
      </trkpt>
      <trkpt lat="42.36763" lon="0.26889">
        <ele>633.2</ele>
        <time>2018-05-06T07:44:09Z</time>
      </trkpt>
      <trkpt lat="42.36752" lon="0.26869">
        <ele>634.9</ele>
        <time>2018-05-06T07:44:13Z</time>
      </trkpt>
      <trkpt lat="42.36735" lon="0.26853">
        <ele>636.1</ele>
        <time>2018-05-06T07:44:18Z</time>
      </trkpt>
      <trkpt lat="42.36717" lon="0.26846">
        <ele>636.5</ele>
        <time>2018-05-06T07:44:23Z</time>
      </trkpt>
      <trkpt lat="42.36697" lon="0.26843">
        <ele>636.4</ele>
        <time>2018-05-06T07:44:28Z</time>
      </trkpt>
      <trkpt lat="42.36677" lon="0.26839">
        <ele>636</ele>
        <time>2018-05-06T07:44:33Z</time>
      </trkpt>
      <trkpt lat="42.36656" lon="0.26834">
        <ele>635.8</ele>
        <time>2018-05-06T07:44:38Z</time>
      </trkpt>
      <trkpt lat="42.36635" lon="0.26826">
        <ele>635.2</ele>
        <time>2018-05-06T07:44:43Z</time>
      </trkpt>
      <trkpt lat="42.36614" lon="0.26812">
        <ele>634.7</ele>
        <time>2018-05-06T07:44:47Z</time>
      </trkpt>
      <trkpt lat="42.36595" lon="0.26797">
        <ele>634.1</ele>
        <time>2018-05-06T07:44:50Z</time>
      </trkpt>
      <trkpt lat="42.36572" lon="0.26777">
        <ele>633.7</ele>
        <time>2018-05-06T07:44:53Z</time>
      </trkpt>
      <trkpt lat="42.36557" lon="0.26763">
        <ele>633.2</ele>
        <time>2018-05-06T07:44:55Z</time>
      </trkpt>
      <trkpt lat="42.36542" lon="0.26748">
        <ele>632.7</ele>
        <time>2018-05-06T07:44:57Z</time>
      </trkpt>
      <trkpt lat="42.36524" lon="0.26728">
        <ele>632.6</ele>
        <time>2018-05-06T07:45:00Z</time>
      </trkpt>
      <trkpt lat="42.36513" lon="0.26707">
        <ele>632.8</ele>
        <time>2018-05-06T07:45:03Z</time>
      </trkpt>
      <trkpt lat="42.36507" lon="0.26695">
        <ele>633.1</ele>
        <time>2018-05-06T07:45:05Z</time>
      </trkpt>
      <trkpt lat="42.3649" lon="0.26684">
        <ele>633.1</ele>
        <time>2018-05-06T07:45:09Z</time>
      </trkpt>
      <trkpt lat="42.3647" lon="0.2668">
        <ele>632.9</ele>
        <time>2018-05-06T07:45:13Z</time>
      </trkpt>
      <trkpt lat="42.36452" lon="0.26676">
        <ele>633</ele>
        <time>2018-05-06T07:45:17Z</time>
      </trkpt>
      <trkpt lat="42.3643" lon="0.26671">
        <ele>633.5</ele>
        <time>2018-05-06T07:45:22Z</time>
      </trkpt>
      <trkpt lat="42.3641" lon="0.26664">
        <ele>634</ele>
        <time>2018-05-06T07:45:27Z</time>
      </trkpt>
      <trkpt lat="42.36389" lon="0.26653">
        <ele>634.1</ele>
        <time>2018-05-06T07:45:32Z</time>
      </trkpt>
      <trkpt lat="42.36371" lon="0.26642">
        <ele>634</ele>
        <time>2018-05-06T07:45:36Z</time>
      </trkpt>
      <trkpt lat="42.36351" lon="0.26632">
        <ele>633.6</ele>
        <time>2018-05-06T07:45:40Z</time>
      </trkpt>
      <trkpt lat="42.36332" lon="0.26622">
        <ele>632.8</ele>
        <time>2018-05-06T07:45:44Z</time>
      </trkpt>
      <trkpt lat="42.36312" lon="0.26611">
        <ele>631.9</ele>
        <time>2018-05-06T07:45:48Z</time>
      </trkpt>
      <trkpt lat="42.36291" lon="0.26601">
        <ele>631.1</ele>
        <time>2018-05-06T07:45:52Z</time>
      </trkpt>
      <trkpt lat="42.36271" lon="0.2659">
        <ele>630.2</ele>
        <time>2018-05-06T07:45:56Z</time>
      </trkpt>
      <trkpt lat="42.3625" lon="0.26578">
        <ele>629.2</ele>
        <time>2018-05-06T07:46:00Z</time>
      </trkpt>
      <trkpt lat="42.36228" lon="0.26565">
        <ele>627.9</ele>
        <time>2018-05-06T07:46:04Z</time>
      </trkpt>
      <trkpt lat="42.36208" lon="0.2655">
        <ele>626.1</ele>
        <time>2018-05-06T07:46:08Z</time>
      </trkpt>
      <trkpt lat="42.36192" lon="0.2654">
        <ele>625</ele>
        <time>2018-05-06T07:46:11Z</time>
      </trkpt>
      <trkpt lat="42.36169" lon="0.2653">
        <ele>623.6</ele>
        <time>2018-05-06T07:46:14Z</time>
      </trkpt>
      <trkpt lat="42.36144" lon="0.26523">
        <ele>622.4</ele>
        <time>2018-05-06T07:46:17Z</time>
      </trkpt>
      <trkpt lat="42.36126" lon="0.26519">
        <ele>621.7</ele>
        <time>2018-05-06T07:46:19Z</time>
      </trkpt>
      <trkpt lat="42.36106" lon="0.26517">
        <ele>620.7</ele>
        <time>2018-05-06T07:46:21Z</time>
      </trkpt>
      <trkpt lat="42.36086" lon="0.26514">
        <ele>620.1</ele>
        <time>2018-05-06T07:46:23Z</time>
      </trkpt>
      <trkpt lat="42.36065" lon="0.26509">
        <ele>618.7</ele>
        <time>2018-05-06T07:46:25Z</time>
      </trkpt>
      <trkpt lat="42.36044" lon="0.26502">
        <ele>617</ele>
        <time>2018-05-06T07:46:27Z</time>
      </trkpt>
      <trkpt lat="42.36024" lon="0.26492">
        <ele>615.8</ele>
        <time>2018-05-06T07:46:29Z</time>
      </trkpt>
      <trkpt lat="42.36007" lon="0.26474">
        <ele>613.9</ele>
        <time>2018-05-06T07:46:31Z</time>
      </trkpt>
      <trkpt lat="42.35996" lon="0.26449">
        <ele>611.3</ele>
        <time>2018-05-06T07:46:33Z</time>
      </trkpt>
      <trkpt lat="42.35988" lon="0.26417">
        <ele>609.2</ele>
        <time>2018-05-06T07:46:36Z</time>
      </trkpt>
      <trkpt lat="42.35984" lon="0.26393">
        <ele>608.3</ele>
        <time>2018-05-06T07:46:42Z</time>
      </trkpt>
      <trkpt lat="42.35979" lon="0.26368">
        <ele>608.5</ele>
        <time>2018-05-06T07:46:50Z</time>
      </trkpt>
      <trkpt lat="42.35975" lon="0.26345">
        <ele>609.3</ele>
        <time>2018-05-06T07:46:55Z</time>
      </trkpt>
      <trkpt lat="42.35971" lon="0.26319">
        <ele>610.6</ele>
        <time>2018-05-06T07:47:00Z</time>
      </trkpt>
      <trkpt lat="42.35961" lon="0.26297">
        <ele>611.6</ele>
        <time>2018-05-06T07:47:06Z</time>
      </trkpt>
      <trkpt lat="42.35947" lon="0.26281">
        <ele>612.4</ele>
        <time>2018-05-06T07:47:13Z</time>
      </trkpt>
      <trkpt lat="42.35931" lon="0.26267">
        <ele>613</ele>
        <time>2018-05-06T07:47:20Z</time>
      </trkpt>
      <trkpt lat="42.35916" lon="0.26248">
        <ele>613.8</ele>
        <time>2018-05-06T07:47:27Z</time>
      </trkpt>
      <trkpt lat="42.35902" lon="0.26228">
        <ele>615.3</ele>
        <time>2018-05-06T07:47:33Z</time>
      </trkpt>
      <trkpt lat="42.35887" lon="0.26208">
        <ele>617.2</ele>
        <time>2018-05-06T07:47:39Z</time>
      </trkpt>
      <trkpt lat="42.35873" lon="0.26187">
        <ele>619</ele>
        <time>2018-05-06T07:47:45Z</time>
      </trkpt>
      <trkpt lat="42.3586" lon="0.26167">
        <ele>620</ele>
        <time>2018-05-06T07:47:51Z</time>
      </trkpt>
      <trkpt lat="42.35851" lon="0.26146">
        <ele>621</ele>
        <time>2018-05-06T07:47:57Z</time>
      </trkpt>
      <trkpt lat="42.35854" lon="0.26121">
        <ele>622.1</ele>
        <time>2018-05-06T07:48:03Z</time>
      </trkpt>
      <trkpt lat="42.35858" lon="0.26096">
        <ele>624.5</ele>
        <time>2018-05-06T07:48:09Z</time>
      </trkpt>
      <trkpt lat="42.35861" lon="0.26071">
        <ele>626.8</ele>
        <time>2018-05-06T07:48:15Z</time>
      </trkpt>
      <trkpt lat="42.35865" lon="0.26046">
        <ele>628.7</ele>
        <time>2018-05-06T07:48:22Z</time>
      </trkpt>
      <trkpt lat="42.35867" lon="0.26022">
        <ele>630.4</ele>
        <time>2018-05-06T07:48:29Z</time>
      </trkpt>
      <trkpt lat="42.35872" lon="0.25995">
        <ele>631.3</ele>
        <time>2018-05-06T07:48:37Z</time>
      </trkpt>
      <trkpt lat="42.35879" lon="0.2597">
        <ele>632</ele>
        <time>2018-05-06T07:48:44Z</time>
      </trkpt>
      <trkpt lat="42.35889" lon="0.25946">
        <ele>632.6</ele>
        <time>2018-05-06T07:48:51Z</time>
      </trkpt>
      <trkpt lat="42.35903" lon="0.25926">
        <ele>633.6</ele>
        <time>2018-05-06T07:48:58Z</time>
      </trkpt>
      <trkpt lat="42.3592" lon="0.25914">
        <ele>635.4</ele>
        <time>2018-05-06T07:49:05Z</time>
      </trkpt>
      <trkpt lat="42.35937" lon="0.25903">
        <ele>636.6</ele>
        <time>2018-05-06T07:49:12Z</time>
      </trkpt>
      <trkpt lat="42.35954" lon="0.25892">
        <ele>638.2</ele>
        <time>2018-05-06T07:49:19Z</time>
      </trkpt>
      <trkpt lat="42.35971" lon="0.25883">
        <ele>639.3</ele>
        <time>2018-05-06T07:49:26Z</time>
      </trkpt>
      <trkpt lat="42.35989" lon="0.2587">
        <ele>641.3</ele>
        <time>2018-05-06T07:49:34Z</time>
      </trkpt>
      <trkpt lat="42.36006" lon="0.25865">
        <ele>643.4</ele>
        <time>2018-05-06T07:49:42Z</time>
      </trkpt>
      <trkpt lat="42.36024" lon="0.25871">
        <ele>644.4</ele>
        <time>2018-05-06T07:49:51Z</time>
      </trkpt>
      <trkpt lat="42.36043" lon="0.2588">
        <ele>644.8</ele>
        <time>2018-05-06T07:50:01Z</time>
      </trkpt>
      <trkpt lat="42.36063" lon="0.25881">
        <ele>645</ele>
        <time>2018-05-06T07:50:10Z</time>
      </trkpt>
      <trkpt lat="42.36082" lon="0.25876">
        <ele>645.2</ele>
        <time>2018-05-06T07:50:18Z</time>
      </trkpt>
      <trkpt lat="42.36084" lon="0.25851">
        <ele>646.3</ele>
        <time>2018-05-06T07:50:24Z</time>
      </trkpt>
      <trkpt lat="42.36078" lon="0.25823">
        <ele>647.5</ele>
        <time>2018-05-06T07:50:29Z</time>
      </trkpt>
      <trkpt lat="42.36078" lon="0.25794">
        <ele>648.2</ele>
        <time>2018-05-06T07:50:33Z</time>
      </trkpt>
      <trkpt lat="42.36081" lon="0.2578">
        <ele>648.4</ele>
        <time>2018-05-06T07:50:35Z</time>
      </trkpt>
      <trkpt lat="42.36089" lon="0.25753">
        <ele>648.7</ele>
        <time>2018-05-06T07:50:39Z</time>
      </trkpt>
      <trkpt lat="42.36096" lon="0.25731">
        <ele>648.9</ele>
        <time>2018-05-06T07:50:43Z</time>
      </trkpt>
      <trkpt lat="42.36099" lon="0.25705">
        <ele>649</ele>
        <time>2018-05-06T07:50:48Z</time>
      </trkpt>
      <trkpt lat="42.36094" lon="0.25677">
        <ele>648.6</ele>
        <time>2018-05-06T07:50:54Z</time>
      </trkpt>
      <trkpt lat="42.36091" lon="0.25658">
        <ele>647.9</ele>
        <time>2018-05-06T07:50:58Z</time>
      </trkpt>
      <trkpt lat="42.36102" lon="0.25635">
        <ele>647.7</ele>
        <time>2018-05-06T07:51:03Z</time>
      </trkpt>
      <trkpt lat="42.36105" lon="0.25632">
        <ele>647.6</ele>
        <time>2018-05-06T07:51:04Z</time>
      </trkpt>
      <trkpt lat="42.36121" lon="0.25616">
        <ele>647.5</ele>
        <time>2018-05-06T07:51:09Z</time>
      </trkpt>
      <trkpt lat="42.36138" lon="0.25599">
        <ele>647.5</ele>
        <time>2018-05-06T07:51:14Z</time>
      </trkpt>
      <trkpt lat="42.36146" lon="0.25589">
        <ele>647.5</ele>
        <time>2018-05-06T07:51:16Z</time>
      </trkpt>
      <trkpt lat="42.36159" lon="0.2557">
        <ele>647.2</ele>
        <time>2018-05-06T07:51:19Z</time>
      </trkpt>
      <trkpt lat="42.36172" lon="0.25546">
        <ele>646.6</ele>
        <time>2018-05-06T07:51:22Z</time>
      </trkpt>
      <trkpt lat="42.36187" lon="0.25518">
        <ele>646</ele>
        <time>2018-05-06T07:51:25Z</time>
      </trkpt>
      <trkpt lat="42.362" lon="0.255">
        <ele>645.5</ele>
        <time>2018-05-06T07:51:27Z</time>
      </trkpt>
      <trkpt lat="42.36214" lon="0.25482">
        <ele>644.9</ele>
        <time>2018-05-06T07:51:29Z</time>
      </trkpt>
      <trkpt lat="42.36232" lon="0.25457">
        <ele>644.3</ele>
        <time>2018-05-06T07:51:32Z</time>
      </trkpt>
      <trkpt lat="42.36248" lon="0.25435">
        <ele>644.1</ele>
        <time>2018-05-06T07:51:35Z</time>
      </trkpt>
      <trkpt lat="42.36253" lon="0.25427">
        <ele>644.1</ele>
        <time>2018-05-06T07:51:36Z</time>
      </trkpt>
      <trkpt lat="42.36256" lon="0.25401">
        <ele>644.7</ele>
        <time>2018-05-06T07:51:39Z</time>
      </trkpt>
      <trkpt lat="42.36246" lon="0.25379">
        <ele>645.7</ele>
        <time>2018-05-06T07:51:42Z</time>
      </trkpt>
      <trkpt lat="42.36234" lon="0.2536">
        <ele>646.9</ele>
        <time>2018-05-06T07:51:45Z</time>
      </trkpt>
      <trkpt lat="42.36222" lon="0.25335">
        <ele>648.4</ele>
        <time>2018-05-06T07:51:49Z</time>
      </trkpt>
      <trkpt lat="42.3621" lon="0.2531">
        <ele>649.5</ele>
        <time>2018-05-06T07:51:54Z</time>
      </trkpt>
      <trkpt lat="42.362" lon="0.25289">
        <ele>650</ele>
        <time>2018-05-06T07:51:59Z</time>
      </trkpt>
      <trkpt lat="42.3619" lon="0.25266">
        <ele>650.6</ele>
        <time>2018-05-06T07:52:04Z</time>
      </trkpt>
      <trkpt lat="42.36179" lon="0.25243">
        <ele>651.8</ele>
        <time>2018-05-06T07:52:09Z</time>
      </trkpt>
      <trkpt lat="42.3617" lon="0.25221">
        <ele>653</ele>
        <time>2018-05-06T07:52:14Z</time>
      </trkpt>
      <trkpt lat="42.36159" lon="0.25199">
        <ele>654.3</ele>
        <time>2018-05-06T07:52:19Z</time>
      </trkpt>
      <trkpt lat="42.3615" lon="0.25176">
        <ele>655.3</ele>
        <time>2018-05-06T07:52:24Z</time>
      </trkpt>
      <trkpt lat="42.36143" lon="0.2515">
        <ele>656.3</ele>
        <time>2018-05-06T07:52:29Z</time>
      </trkpt>
      <trkpt lat="42.36142" lon="0.25125">
        <ele>657.3</ele>
        <time>2018-05-06T07:52:34Z</time>
      </trkpt>
      <trkpt lat="42.36144" lon="0.25096">
        <ele>659.9</ele>
        <time>2018-05-06T07:52:40Z</time>
      </trkpt>
      <trkpt lat="42.36146" lon="0.25072">
        <ele>663.6</ele>
        <time>2018-05-06T07:52:46Z</time>
      </trkpt>
      <trkpt lat="42.36147" lon="0.25047">
        <ele>664.8</ele>
        <time>2018-05-06T07:52:53Z</time>
      </trkpt>
      <trkpt lat="42.36148" lon="0.2502">
        <ele>666.1</ele>
        <time>2018-05-06T07:53:00Z</time>
      </trkpt>
      <trkpt lat="42.36146" lon="0.24992">
        <ele>667.5</ele>
        <time>2018-05-06T07:53:07Z</time>
      </trkpt>
      <trkpt lat="42.36141" lon="0.24965">
        <ele>668.9</ele>
        <time>2018-05-06T07:53:14Z</time>
      </trkpt>
      <trkpt lat="42.36139" lon="0.24939">
        <ele>670.4</ele>
        <time>2018-05-06T07:53:21Z</time>
      </trkpt>
      <trkpt lat="42.36136" lon="0.24915">
        <ele>671.8</ele>
        <time>2018-05-06T07:53:28Z</time>
      </trkpt>
      <trkpt lat="42.36132" lon="0.2489">
        <ele>673.5</ele>
        <time>2018-05-06T07:53:35Z</time>
      </trkpt>
      <trkpt lat="42.36132" lon="0.24866">
        <ele>675.2</ele>
        <time>2018-05-06T07:53:42Z</time>
      </trkpt>
      <trkpt lat="42.36132" lon="0.24841">
        <ele>676.7</ele>
        <time>2018-05-06T07:53:49Z</time>
      </trkpt>
      <trkpt lat="42.3613" lon="0.24815">
        <ele>677.5</ele>
        <time>2018-05-06T07:53:56Z</time>
      </trkpt>
      <trkpt lat="42.36126" lon="0.24789">
        <ele>678.3</ele>
        <time>2018-05-06T07:54:03Z</time>
      </trkpt>
      <trkpt lat="42.36123" lon="0.24765">
        <ele>679.9</ele>
        <time>2018-05-06T07:54:10Z</time>
      </trkpt>
      <trkpt lat="42.36118" lon="0.24741">
        <ele>682</ele>
        <time>2018-05-06T07:54:17Z</time>
      </trkpt>
      <trkpt lat="42.36113" lon="0.24718">
        <ele>684.6</ele>
        <time>2018-05-06T07:54:24Z</time>
      </trkpt>
      <trkpt lat="42.36109" lon="0.24693">
        <ele>687.3</ele>
        <time>2018-05-06T07:54:31Z</time>
      </trkpt>
      <trkpt lat="42.36104" lon="0.24669">
        <ele>689.9</ele>
        <time>2018-05-06T07:54:38Z</time>
      </trkpt>
      <trkpt lat="42.36102" lon="0.24645">
        <ele>692.7</ele>
        <time>2018-05-06T07:54:46Z</time>
      </trkpt>
      <trkpt lat="42.36111" lon="0.24624">
        <ele>695.1</ele>
        <time>2018-05-06T07:54:55Z</time>
      </trkpt>
      <trkpt lat="42.36124" lon="0.24605">
        <ele>696.6</ele>
        <time>2018-05-06T07:55:05Z</time>
      </trkpt>
      <trkpt lat="42.36136" lon="0.24586">
        <ele>698.2</ele>
        <time>2018-05-06T07:55:15Z</time>
      </trkpt>
      <trkpt lat="42.36148" lon="0.24564">
        <ele>699.9</ele>
        <time>2018-05-06T07:55:25Z</time>
      </trkpt>
      <trkpt lat="42.36159" lon="0.24545">
        <ele>701.1</ele>
        <time>2018-05-06T07:55:34Z</time>
      </trkpt>
      <trkpt lat="42.36172" lon="0.24526">
        <ele>702.9</ele>
        <time>2018-05-06T07:55:43Z</time>
      </trkpt>
      <trkpt lat="42.36186" lon="0.24506">
        <ele>704.5</ele>
        <time>2018-05-06T07:55:51Z</time>
      </trkpt>
      <trkpt lat="42.36199" lon="0.24489">
        <ele>706.4</ele>
        <time>2018-05-06T07:55:58Z</time>
      </trkpt>
      <trkpt lat="42.36216" lon="0.24476">
        <ele>707.9</ele>
        <time>2018-05-06T07:56:05Z</time>
      </trkpt>
      <trkpt lat="42.36233" lon="0.24466">
        <ele>708.7</ele>
        <time>2018-05-06T07:56:11Z</time>
      </trkpt>
      <trkpt lat="42.36252" lon="0.2446">
        <ele>709.5</ele>
        <time>2018-05-06T07:56:17Z</time>
      </trkpt>
      <trkpt lat="42.36272" lon="0.24455">
        <ele>710.8</ele>
        <time>2018-05-06T07:56:23Z</time>
      </trkpt>
      <trkpt lat="42.3629" lon="0.24446">
        <ele>712.3</ele>
        <time>2018-05-06T07:56:29Z</time>
      </trkpt>
      <trkpt lat="42.36307" lon="0.24435">
        <ele>715.2</ele>
        <time>2018-05-06T07:56:35Z</time>
      </trkpt>
      <trkpt lat="42.36324" lon="0.24422">
        <ele>717.9</ele>
        <time>2018-05-06T07:56:42Z</time>
      </trkpt>
      <trkpt lat="42.36341" lon="0.24409">
        <ele>721.3</ele>
        <time>2018-05-06T07:56:50Z</time>
      </trkpt>
      <trkpt lat="42.36358" lon="0.24401">
        <ele>722.9</ele>
        <time>2018-05-06T07:56:58Z</time>
      </trkpt>
      <trkpt lat="42.36379" lon="0.24397">
        <ele>724</ele>
        <time>2018-05-06T07:57:06Z</time>
      </trkpt>
      <trkpt lat="42.36399" lon="0.24392">
        <ele>725.3</ele>
        <time>2018-05-06T07:57:14Z</time>
      </trkpt>
      <trkpt lat="42.36418" lon="0.24387">
        <ele>726.7</ele>
        <time>2018-05-06T07:57:22Z</time>
      </trkpt>
      <trkpt lat="42.36437" lon="0.24385">
        <ele>727.6</ele>
        <time>2018-05-06T07:57:31Z</time>
      </trkpt>
      <trkpt lat="42.36455" lon="0.24378">
        <ele>728.7</ele>
        <time>2018-05-06T07:57:42Z</time>
      </trkpt>
      <trkpt lat="42.36472" lon="0.2437">
        <ele>730.9</ele>
        <time>2018-05-06T07:57:54Z</time>
      </trkpt>
      <trkpt lat="42.3649" lon="0.24362">
        <ele>734</ele>
        <time>2018-05-06T07:58:04Z</time>
      </trkpt>
      <trkpt lat="42.36509" lon="0.24359">
        <ele>733.9</ele>
        <time>2018-05-06T07:58:14Z</time>
      </trkpt>
      <trkpt lat="42.36528" lon="0.24358">
        <ele>734.4</ele>
        <time>2018-05-06T07:58:24Z</time>
      </trkpt>
      <trkpt lat="42.36546" lon="0.24356">
        <ele>736.4</ele>
        <time>2018-05-06T07:58:34Z</time>
      </trkpt>
      <trkpt lat="42.36557" lon="0.24337">
        <ele>743.2</ele>
        <time>2018-05-06T07:58:44Z</time>
      </trkpt>
      <trkpt lat="42.36556" lon="0.24335">
        <ele>743.9</ele>
        <time>2018-05-06T07:58:45Z</time>
      </trkpt>
      <trkpt lat="42.3654" lon="0.24325">
        <ele>744.4</ele>
        <time>2018-05-06T07:58:56Z</time>
      </trkpt>
      <trkpt lat="42.36521" lon="0.24325">
        <ele>746</ele>
        <time>2018-05-06T07:59:06Z</time>
      </trkpt>
      <trkpt lat="42.36502" lon="0.24321">
        <ele>747.4</ele>
        <time>2018-05-06T07:59:16Z</time>
      </trkpt>
      <trkpt lat="42.36484" lon="0.24316">
        <ele>749.2</ele>
        <time>2018-05-06T07:59:27Z</time>
      </trkpt>
      <trkpt lat="42.36465" lon="0.24308">
        <ele>751.2</ele>
        <time>2018-05-06T07:59:39Z</time>
      </trkpt>
      <trkpt lat="42.36447" lon="0.24299">
        <ele>753.3</ele>
        <time>2018-05-06T07:59:51Z</time>
      </trkpt>
      <trkpt lat="42.36428" lon="0.24295">
        <ele>753.2</ele>
        <time>2018-05-06T08:00:02Z</time>
      </trkpt>
      <trkpt lat="42.3641" lon="0.24289">
        <ele>753.9</ele>
        <time>2018-05-06T08:00:12Z</time>
      </trkpt>
      <trkpt lat="42.36394" lon="0.24276">
        <ele>756.9</ele>
        <time>2018-05-06T08:00:22Z</time>
      </trkpt>
      <trkpt lat="42.36381" lon="0.24256">
        <ele>759.7</ele>
        <time>2018-05-06T08:00:31Z</time>
      </trkpt>
      <trkpt lat="42.36366" lon="0.2424">
        <ele>762.2</ele>
        <time>2018-05-06T08:00:40Z</time>
      </trkpt>
      <trkpt lat="42.36352" lon="0.24223">
        <ele>765.2</ele>
        <time>2018-05-06T08:00:49Z</time>
      </trkpt>
      <trkpt lat="42.3636" lon="0.24202">
        <ele>767.2</ele>
        <time>2018-05-06T08:00:59Z</time>
      </trkpt>
      <trkpt lat="42.3638" lon="0.24203">
        <ele>768.9</ele>
        <time>2018-05-06T08:01:09Z</time>
      </trkpt>
      <trkpt lat="42.36399" lon="0.24207">
        <ele>769.7</ele>
        <time>2018-05-06T08:01:19Z</time>
      </trkpt>
      <trkpt lat="42.36416" lon="0.24216">
        <ele>770.7</ele>
        <time>2018-05-06T08:01:28Z</time>
      </trkpt>
      <trkpt lat="42.36433" lon="0.24229">
        <ele>770.7</ele>
        <time>2018-05-06T08:01:38Z</time>
      </trkpt>
      <trkpt lat="42.36449" lon="0.24241">
        <ele>769.5</ele>
        <time>2018-05-06T08:01:48Z</time>
      </trkpt>
      <trkpt lat="42.36456" lon="0.24224">
        <ele>772.7</ele>
        <time>2018-05-06T08:01:57Z</time>
      </trkpt>
      <trkpt lat="42.36446" lon="0.24203">
        <ele>775.3</ele>
        <time>2018-05-06T08:02:06Z</time>
      </trkpt>
      <trkpt lat="42.36436" lon="0.24181">
        <ele>776.6</ele>
        <time>2018-05-06T08:02:15Z</time>
      </trkpt>
      <trkpt lat="42.36425" lon="0.24161">
        <ele>775.7</ele>
        <time>2018-05-06T08:02:24Z</time>
      </trkpt>
      <trkpt lat="42.36413" lon="0.24143">
        <ele>774.2</ele>
        <time>2018-05-06T08:02:33Z</time>
      </trkpt>
      <trkpt lat="42.36404" lon="0.24122">
        <ele>772.4</ele>
        <time>2018-05-06T08:02:42Z</time>
      </trkpt>
      <trkpt lat="42.36388" lon="0.24107">
        <ele>770.4</ele>
        <time>2018-05-06T08:02:52Z</time>
      </trkpt>
      <trkpt lat="42.36371" lon="0.24093">
        <ele>769.3</ele>
        <time>2018-05-06T08:03:01Z</time>
      </trkpt>
      <trkpt lat="42.36354" lon="0.24083">
        <ele>769.8</ele>
        <time>2018-05-06T08:03:09Z</time>
      </trkpt>
      <trkpt lat="42.36336" lon="0.24075">
        <ele>770.6</ele>
        <time>2018-05-06T08:03:17Z</time>
      </trkpt>
      <trkpt lat="42.36317" lon="0.24067">
        <ele>773.8</ele>
        <time>2018-05-06T08:03:24Z</time>
      </trkpt>
      <trkpt lat="42.363" lon="0.24059">
        <ele>777.5</ele>
        <time>2018-05-06T08:03:30Z</time>
      </trkpt>
      <trkpt lat="42.36283" lon="0.24046">
        <ele>779.2</ele>
        <time>2018-05-06T08:03:37Z</time>
      </trkpt>
      <trkpt lat="42.36267" lon="0.24032">
        <ele>782.3</ele>
        <time>2018-05-06T08:03:44Z</time>
      </trkpt>
      <trkpt lat="42.36251" lon="0.24015">
        <ele>784.7</ele>
        <time>2018-05-06T08:03:52Z</time>
      </trkpt>
      <trkpt lat="42.36233" lon="0.24007">
        <ele>788.9</ele>
        <time>2018-05-06T08:04:00Z</time>
      </trkpt>
      <trkpt lat="42.36213" lon="0.24001">
        <ele>792.3</ele>
        <time>2018-05-06T08:04:08Z</time>
      </trkpt>
      <trkpt lat="42.36193" lon="0.23998">
        <ele>796.3</ele>
        <time>2018-05-06T08:04:15Z</time>
      </trkpt>
      <trkpt lat="42.36174" lon="0.23988">
        <ele>799.4</ele>
        <time>2018-05-06T08:04:21Z</time>
      </trkpt>
      <trkpt lat="42.36157" lon="0.23974">
        <ele>801.4</ele>
        <time>2018-05-06T08:04:27Z</time>
      </trkpt>
      <trkpt lat="42.36139" lon="0.23962">
        <ele>803.9</ele>
        <time>2018-05-06T08:04:34Z</time>
      </trkpt>
      <trkpt lat="42.36125" lon="0.23944">
        <ele>805</ele>
        <time>2018-05-06T08:04:40Z</time>
      </trkpt>
      <trkpt lat="42.36119" lon="0.23916">
        <ele>804</ele>
        <time>2018-05-06T08:04:45Z</time>
      </trkpt>
      <trkpt lat="42.3612" lon="0.23893">
        <ele>806.3</ele>
        <time>2018-05-06T08:04:49Z</time>
      </trkpt>
      <trkpt lat="42.36121" lon="0.23868">
        <ele>809.9</ele>
        <time>2018-05-06T08:04:54Z</time>
      </trkpt>
      <trkpt lat="42.36125" lon="0.23842">
        <ele>813.8</ele>
        <time>2018-05-06T08:05:00Z</time>
      </trkpt>
      <trkpt lat="42.36127" lon="0.23817">
        <ele>818</ele>
        <time>2018-05-06T08:05:07Z</time>
      </trkpt>
      <trkpt lat="42.36117" lon="0.23796">
        <ele>822.8</ele>
        <time>2018-05-06T08:05:17Z</time>
      </trkpt>
      <trkpt lat="42.36099" lon="0.23785">
        <ele>826</ele>
        <time>2018-05-06T08:05:27Z</time>
      </trkpt>
      <trkpt lat="42.36081" lon="0.23778">
        <ele>829.2</ele>
        <time>2018-05-06T08:05:38Z</time>
      </trkpt>
      <trkpt lat="42.36074" lon="0.23776">
        <ele>830.5</ele>
        <time>2018-05-06T08:05:43Z</time>
      </trkpt>
      <trkpt lat="42.36073" lon="0.23762">
        <ele>832.4</ele>
        <time>2018-05-06T08:05:51Z</time>
      </trkpt>
      <trkpt lat="42.36076" lon="0.23756">
        <ele>833.4</ele>
        <time>2018-05-06T08:05:55Z</time>
      </trkpt>
      <trkpt lat="42.36091" lon="0.2374">
        <ele>835.5</ele>
        <time>2018-05-06T08:06:08Z</time>
      </trkpt>
      <trkpt lat="42.36105" lon="0.23723">
        <ele>837.3</ele>
        <time>2018-05-06T08:06:22Z</time>
      </trkpt>
      <trkpt lat="42.36123" lon="0.2371">
        <ele>839.5</ele>
        <time>2018-05-06T08:06:34Z</time>
      </trkpt>
      <trkpt lat="42.36137" lon="0.23693">
        <ele>841.6</ele>
        <time>2018-05-06T08:06:45Z</time>
      </trkpt>
      <trkpt lat="42.3615" lon="0.23681">
        <ele>842.7</ele>
        <time>2018-05-06T08:06:54Z</time>
      </trkpt>
      <trkpt lat="42.36169" lon="0.23677">
        <ele>840.7</ele>
        <time>2018-05-06T08:07:06Z</time>
      </trkpt>
      <trkpt lat="42.36181" lon="0.23656">
        <ele>846.3</ele>
        <time>2018-05-06T08:07:19Z</time>
      </trkpt>
      <trkpt lat="42.36172" lon="0.23639">
        <ele>853</ele>
        <time>2018-05-06T08:07:34Z</time>
      </trkpt>
      <trkpt lat="42.36153" lon="0.23638">
        <ele>854.9</ele>
        <time>2018-05-06T08:07:47Z</time>
      </trkpt>
      <trkpt lat="42.36134" lon="0.23637">
        <ele>858.3</ele>
        <time>2018-05-06T08:07:58Z</time>
      </trkpt>
      <trkpt lat="42.36115" lon="0.23636">
        <ele>860</ele>
        <time>2018-05-06T08:08:10Z</time>
      </trkpt>
      <trkpt lat="42.36097" lon="0.23642">
        <ele>861.9</ele>
        <time>2018-05-06T08:08:22Z</time>
      </trkpt>
      <trkpt lat="42.3608" lon="0.23652">
        <ele>858.5</ele>
        <time>2018-05-06T08:08:34Z</time>
      </trkpt>
      <trkpt lat="42.36062" lon="0.23652">
        <ele>860.1</ele>
        <time>2018-05-06T08:08:46Z</time>
      </trkpt>
      <trkpt lat="42.36043" lon="0.2365">
        <ele>862.1</ele>
        <time>2018-05-06T08:08:58Z</time>
      </trkpt>
      <trkpt lat="42.36026" lon="0.23642">
        <ele>865.9</ele>
        <time>2018-05-06T08:09:08Z</time>
      </trkpt>
      <trkpt lat="42.36011" lon="0.23629">
        <ele>869.5</ele>
        <time>2018-05-06T08:09:19Z</time>
      </trkpt>
      <trkpt lat="42.35994" lon="0.23621">
        <ele>873.4</ele>
        <time>2018-05-06T08:09:33Z</time>
      </trkpt>
      <trkpt lat="42.35986" lon="0.23611">
        <ele>875.2</ele>
        <time>2018-05-06T08:09:41Z</time>
      </trkpt>
      <trkpt lat="42.35989" lon="0.23604">
        <ele>876</ele>
        <time>2018-05-06T08:09:46Z</time>
      </trkpt>
      <trkpt lat="42.36007" lon="0.23599">
        <ele>876.9</ele>
        <time>2018-05-06T08:10:00Z</time>
      </trkpt>
      <trkpt lat="42.36026" lon="0.23598">
        <ele>876.9</ele>
        <time>2018-05-06T08:10:13Z</time>
      </trkpt>
      <trkpt lat="42.36037" lon="0.23591">
        <ele>878.2</ele>
        <time>2018-05-06T08:10:22Z</time>
      </trkpt>
      <trkpt lat="42.36028" lon="0.23579">
        <ele>880.9</ele>
        <time>2018-05-06T08:10:36Z</time>
      </trkpt>
      <trkpt lat="42.36011" lon="0.23573">
        <ele>883.5</ele>
        <time>2018-05-06T08:10:49Z</time>
      </trkpt>
      <trkpt lat="42.36009" lon="0.2357">
        <ele>884.2</ele>
        <time>2018-05-06T08:10:51Z</time>
      </trkpt>
      <trkpt lat="42.36008" lon="0.23563">
        <ele>884.4</ele>
        <time>2018-05-06T08:10:55Z</time>
      </trkpt>
      <trkpt lat="42.36013" lon="0.23558">
        <ele>885.9</ele>
        <time>2018-05-06T08:10:59Z</time>
      </trkpt>
      <trkpt lat="42.3603" lon="0.23549">
        <ele>888.9</ele>
        <time>2018-05-06T08:11:12Z</time>
      </trkpt>
      <trkpt lat="42.36047" lon="0.2354">
        <ele>891.4</ele>
        <time>2018-05-06T08:11:25Z</time>
      </trkpt>
      <trkpt lat="42.36065" lon="0.23533">
        <ele>894.1</ele>
        <time>2018-05-06T08:11:38Z</time>
      </trkpt>
      <trkpt lat="42.36082" lon="0.23521">
        <ele>896.1</ele>
        <time>2018-05-06T08:11:51Z</time>
      </trkpt>
      <trkpt lat="42.36097" lon="0.23507">
        <ele>897.6</ele>
        <time>2018-05-06T08:12:05Z</time>
      </trkpt>
      <trkpt lat="42.36112" lon="0.23493">
        <ele>900.6</ele>
        <time>2018-05-06T08:12:18Z</time>
      </trkpt>
      <trkpt lat="42.36126" lon="0.23477">
        <ele>902.9</ele>
        <time>2018-05-06T08:12:31Z</time>
      </trkpt>
      <trkpt lat="42.3614" lon="0.23461">
        <ele>905.2</ele>
        <time>2018-05-06T08:12:45Z</time>
      </trkpt>
      <trkpt lat="42.36151" lon="0.23441">
        <ele>907.6</ele>
        <time>2018-05-06T08:12:58Z</time>
      </trkpt>
      <trkpt lat="42.36158" lon="0.23418">
        <ele>910.4</ele>
        <time>2018-05-06T08:13:09Z</time>
      </trkpt>
      <trkpt lat="42.36162" lon="0.23393">
        <ele>913.9</ele>
        <time>2018-05-06T08:13:21Z</time>
      </trkpt>
      <trkpt lat="42.36163" lon="0.23367">
        <ele>917.8</ele>
        <time>2018-05-06T08:13:32Z</time>
      </trkpt>
      <trkpt lat="42.36175" lon="0.23347">
        <ele>921.3</ele>
        <time>2018-05-06T08:13:41Z</time>
      </trkpt>
      <trkpt lat="42.36188" lon="0.23328">
        <ele>925.1</ele>
        <time>2018-05-06T08:13:49Z</time>
      </trkpt>
      <trkpt lat="42.36206" lon="0.23312">
        <ele>927.5</ele>
        <time>2018-05-06T08:13:56Z</time>
      </trkpt>
      <trkpt lat="42.36225" lon="0.23308">
        <ele>927.8</ele>
        <time>2018-05-06T08:14:03Z</time>
      </trkpt>
      <trkpt lat="42.36242" lon="0.23315">
        <ele>927.1</ele>
        <time>2018-05-06T08:14:10Z</time>
      </trkpt>
      <trkpt lat="42.36261" lon="0.23318">
        <ele>926.2</ele>
        <time>2018-05-06T08:14:17Z</time>
      </trkpt>
      <trkpt lat="42.36279" lon="0.23311">
        <ele>925.7</ele>
        <time>2018-05-06T08:14:26Z</time>
      </trkpt>
      <trkpt lat="42.36295" lon="0.233">
        <ele>924.9</ele>
        <time>2018-05-06T08:14:33Z</time>
      </trkpt>
      <trkpt lat="42.3631" lon="0.23283">
        <ele>924.1</ele>
        <time>2018-05-06T08:14:40Z</time>
      </trkpt>
      <trkpt lat="42.36317" lon="0.23267">
        <ele>925.7</ele>
        <time>2018-05-06T08:14:47Z</time>
      </trkpt>
      <trkpt lat="42.36311" lon="0.23259">
        <ele>926.9</ele>
        <time>2018-05-06T08:14:53Z</time>
      </trkpt>
      <trkpt lat="42.36293" lon="0.23257">
        <ele>930.5</ele>
        <time>2018-05-06T08:15:08Z</time>
      </trkpt>
      <trkpt lat="42.36274" lon="0.23255">
        <ele>932.5</ele>
        <time>2018-05-06T08:15:21Z</time>
      </trkpt>
      <trkpt lat="42.36256" lon="0.23244">
        <ele>934.8</ele>
        <time>2018-05-06T08:15:36Z</time>
      </trkpt>
      <trkpt lat="42.36257" lon="0.23229">
        <ele>937</ele>
        <time>2018-05-06T08:15:44Z</time>
      </trkpt>
      <trkpt lat="42.36269" lon="0.23211">
        <ele>939</ele>
        <time>2018-05-06T08:15:57Z</time>
      </trkpt>
      <trkpt lat="42.36278" lon="0.2319">
        <ele>940</ele>
        <time>2018-05-06T08:16:10Z</time>
      </trkpt>
      <trkpt lat="42.36284" lon="0.23167">
        <ele>942.2</ele>
        <time>2018-05-06T08:16:21Z</time>
      </trkpt>
      <trkpt lat="42.36285" lon="0.23144">
        <ele>944.1</ele>
        <time>2018-05-06T08:16:31Z</time>
      </trkpt>
      <trkpt lat="42.36285" lon="0.23119">
        <ele>945.9</ele>
        <time>2018-05-06T08:16:41Z</time>
      </trkpt>
      <trkpt lat="42.36287" lon="0.23093">
        <ele>947.9</ele>
        <time>2018-05-06T08:16:50Z</time>
      </trkpt>
      <trkpt lat="42.36288" lon="0.23066">
        <ele>949.5</ele>
        <time>2018-05-06T08:16:59Z</time>
      </trkpt>
      <trkpt lat="42.36288" lon="0.23041">
        <ele>951.3</ele>
        <time>2018-05-06T08:17:08Z</time>
      </trkpt>
      <trkpt lat="42.3629" lon="0.23014">
        <ele>952.2</ele>
        <time>2018-05-06T08:17:17Z</time>
      </trkpt>
      <trkpt lat="42.36296" lon="0.22991">
        <ele>952.9</ele>
        <time>2018-05-06T08:17:25Z</time>
      </trkpt>
      <trkpt lat="42.36302" lon="0.22967">
        <ele>952.6</ele>
        <time>2018-05-06T08:17:34Z</time>
      </trkpt>
      <trkpt lat="42.3631" lon="0.22943">
        <ele>950.6</ele>
        <time>2018-05-06T08:17:43Z</time>
      </trkpt>
      <trkpt lat="42.36311" lon="0.2292">
        <ele>947.6</ele>
        <time>2018-05-06T08:17:52Z</time>
      </trkpt>
      <trkpt lat="42.36298" lon="0.22923">
        <ele>947.4</ele>
        <time>2018-05-06T08:18:01Z</time>
      </trkpt>
      <trkpt lat="42.36283" lon="0.22941">
        <ele>951.3</ele>
        <time>2018-05-06T08:18:11Z</time>
      </trkpt>
      <trkpt lat="42.36267" lon="0.22955">
        <ele>954.7</ele>
        <time>2018-05-06T08:18:21Z</time>
      </trkpt>
      <trkpt lat="42.3625" lon="0.22969">
        <ele>956.9</ele>
        <time>2018-05-06T08:18:31Z</time>
      </trkpt>
      <trkpt lat="42.36235" lon="0.22983">
        <ele>959.5</ele>
        <time>2018-05-06T08:18:40Z</time>
      </trkpt>
      <trkpt lat="42.36217" lon="0.22993">
        <ele>962.6</ele>
        <time>2018-05-06T08:18:48Z</time>
      </trkpt>
      <trkpt lat="42.36199" lon="0.23006">
        <ele>965.4</ele>
        <time>2018-05-06T08:18:56Z</time>
      </trkpt>
      <trkpt lat="42.36182" lon="0.23013">
        <ele>968</ele>
        <time>2018-05-06T08:19:03Z</time>
      </trkpt>
      <trkpt lat="42.36162" lon="0.23018">
        <ele>970.2</ele>
        <time>2018-05-06T08:19:11Z</time>
      </trkpt>
      <trkpt lat="42.36142" lon="0.23021">
        <ele>971.2</ele>
        <time>2018-05-06T08:19:19Z</time>
      </trkpt>
      <trkpt lat="42.36122" lon="0.23025">
        <ele>971.5</ele>
        <time>2018-05-06T08:19:27Z</time>
      </trkpt>
      <trkpt lat="42.36104" lon="0.23031">
        <ele>971.9</ele>
        <time>2018-05-06T08:19:35Z</time>
      </trkpt>
      <trkpt lat="42.36091" lon="0.23031">
        <ele>972</ele>
        <time>2018-05-06T08:19:41Z</time>
      </trkpt>
      <trkpt lat="42.36085" lon="0.23032">
        <ele>972</ele>
        <time>2018-05-06T08:19:57Z</time>
      </trkpt>
      <trkpt lat="42.36077" lon="0.23034">
        <ele>970.9</ele>
        <time>2018-05-06T08:20:01Z</time>
      </trkpt>
      <trkpt lat="42.36063" lon="0.23037">
        <ele>969.4</ele>
        <time>2018-05-06T08:20:08Z</time>
      </trkpt>
      <trkpt lat="42.36059" lon="0.23043">
        <ele>970.4</ele>
        <time>2018-05-06T08:20:25Z</time>
      </trkpt>
      <trkpt lat="42.36042" lon="0.23054">
        <ele>973.8</ele>
        <time>2018-05-06T08:20:34Z</time>
      </trkpt>
      <trkpt lat="42.36027" lon="0.23067">
        <ele>978.6</ele>
        <time>2018-05-06T08:20:43Z</time>
      </trkpt>
      <trkpt lat="42.36022" lon="0.23072">
        <ele>979.9</ele>
        <time>2018-05-06T08:20:46Z</time>
      </trkpt>
      <trkpt lat="42.36009" lon="0.23091">
        <ele>984.2</ele>
        <time>2018-05-06T08:20:57Z</time>
      </trkpt>
      <trkpt lat="42.36006" lon="0.23094">
        <ele>985.2</ele>
        <time>2018-05-06T08:21:20Z</time>
      </trkpt>
      <trkpt lat="42.3602" lon="0.23076">
        <ele>980.8</ele>
        <time>2018-05-06T08:21:25Z</time>
      </trkpt>
      <trkpt lat="42.36034" lon="0.23061">
        <ele>976.6</ele>
        <time>2018-05-06T08:21:29Z</time>
      </trkpt>
      <trkpt lat="42.36038" lon="0.23057">
        <ele>975.2</ele>
        <time>2018-05-06T08:21:30Z</time>
      </trkpt>
      <trkpt lat="42.36058" lon="0.23042">
        <ele>970.4</ele>
        <time>2018-05-06T08:21:34Z</time>
      </trkpt>
      <trkpt lat="42.36078" lon="0.23032">
        <ele>971</ele>
        <time>2018-05-06T08:21:37Z</time>
      </trkpt>
      <trkpt lat="42.36089" lon="0.23027">
        <ele>972</ele>
        <time>2018-05-06T08:21:39Z</time>
      </trkpt>
      <trkpt lat="42.36107" lon="0.23011">
        <ele>966.1</ele>
        <time>2018-05-06T08:21:43Z</time>
      </trkpt>
      <trkpt lat="42.36124" lon="0.23">
        <ele>958.8</ele>
        <time>2018-05-06T08:21:50Z</time>
      </trkpt>
      <trkpt lat="42.36142" lon="0.22996">
        <ele>950.5</ele>
        <time>2018-05-06T08:22:00Z</time>
      </trkpt>
      <trkpt lat="42.36159" lon="0.22987">
        <ele>950</ele>
        <time>2018-05-06T08:22:08Z</time>
      </trkpt>
      <trkpt lat="42.36137" lon="0.22997">
        <ele>958.4</ele>
        <time>2018-05-06T08:22:26Z</time>
      </trkpt>
      <trkpt lat="42.36115" lon="0.23006">
        <ele>965.2</ele>
        <time>2018-05-06T08:22:31Z</time>
      </trkpt>
      <trkpt lat="42.3611" lon="0.23009">
        <ele>966.5</ele>
        <time>2018-05-06T08:22:32Z</time>
      </trkpt>
      <trkpt lat="42.36093" lon="0.23023">
        <ele>971.8</ele>
        <time>2018-05-06T08:22:36Z</time>
      </trkpt>
      <trkpt lat="42.36075" lon="0.23031">
        <ele>970.5</ele>
        <time>2018-05-06T08:22:42Z</time>
      </trkpt>
      <trkpt lat="42.36059" lon="0.2304">
        <ele>970.2</ele>
        <time>2018-05-06T08:22:51Z</time>
      </trkpt>
      <trkpt lat="42.36042" lon="0.23053">
        <ele>973.3</ele>
        <time>2018-05-06T08:23:01Z</time>
      </trkpt>
      <trkpt lat="42.36026" lon="0.23069">
        <ele>977.7</ele>
        <time>2018-05-06T08:23:11Z</time>
      </trkpt>
      <trkpt lat="42.36012" lon="0.23087">
        <ele>981.4</ele>
        <time>2018-05-06T08:23:22Z</time>
      </trkpt>
      <trkpt lat="42.35998" lon="0.23103">
        <ele>984.8</ele>
        <time>2018-05-06T08:23:34Z</time>
      </trkpt>
      <trkpt lat="42.35991" lon="0.23106">
        <ele>986.7</ele>
        <time>2018-05-06T08:23:39Z</time>
      </trkpt>
      <trkpt lat="42.35978" lon="0.23124">
        <ele>990.8</ele>
        <time>2018-05-06T08:23:51Z</time>
      </trkpt>
      <trkpt lat="42.3597" lon="0.23134">
        <ele>993</ele>
        <time>2018-05-06T08:33:55Z</time>
      </trkpt>
      <trkpt lat="42.35964" lon="0.2314">
        <ele>993</ele>
        <time>2018-05-06T08:33:59Z</time>
      </trkpt>
      <trkpt lat="42.35948" lon="0.23151">
        <ele>994.1</ele>
        <time>2018-05-06T08:34:09Z</time>
      </trkpt>
      <trkpt lat="42.3593" lon="0.23159">
        <ele>994.2</ele>
        <time>2018-05-06T08:34:16Z</time>
      </trkpt>
      <trkpt lat="42.35911" lon="0.23166">
        <ele>994.7</ele>
        <time>2018-05-06T08:34:24Z</time>
      </trkpt>
      <trkpt lat="42.35893" lon="0.23172">
        <ele>994.9</ele>
        <time>2018-05-06T08:34:29Z</time>
      </trkpt>
      <trkpt lat="42.35874" lon="0.23175">
        <ele>994.2</ele>
        <time>2018-05-06T08:34:34Z</time>
      </trkpt>
      <trkpt lat="42.35855" lon="0.23172">
        <ele>993.3</ele>
        <time>2018-05-06T08:34:41Z</time>
      </trkpt>
      <trkpt lat="42.35837" lon="0.23165">
        <ele>990.6</ele>
        <time>2018-05-06T08:34:47Z</time>
      </trkpt>
      <trkpt lat="42.35829" lon="0.23162">
        <ele>988.9</ele>
        <time>2018-05-06T08:34:51Z</time>
      </trkpt>
      <trkpt lat="42.35817" lon="0.23167">
        <ele>987.4</ele>
        <time>2018-05-06T08:34:55Z</time>
      </trkpt>
      <trkpt lat="42.35808" lon="0.23169">
        <ele>985.8</ele>
        <time>2018-05-06T08:34:59Z</time>
      </trkpt>
      <trkpt lat="42.35805" lon="0.23176">
        <ele>985.6</ele>
        <time>2018-05-06T08:35:03Z</time>
      </trkpt>
      <trkpt lat="42.35808" lon="0.23181">
        <ele>986.2</ele>
        <time>2018-05-06T08:35:07Z</time>
      </trkpt>
      <trkpt lat="42.35805" lon="0.23188">
        <ele>985.5</ele>
        <time>2018-05-06T08:35:13Z</time>
      </trkpt>
      <trkpt lat="42.35797" lon="0.23192">
        <ele>984</ele>
        <time>2018-05-06T08:35:17Z</time>
      </trkpt>
      <trkpt lat="42.35777" lon="0.23194">
        <ele>981.2</ele>
        <time>2018-05-06T08:35:25Z</time>
      </trkpt>
      <trkpt lat="42.3576" lon="0.23199">
        <ele>979.7</ele>
        <time>2018-05-06T08:35:31Z</time>
      </trkpt>
      <trkpt lat="42.3575" lon="0.23207">
        <ele>979.3</ele>
        <time>2018-05-06T08:35:36Z</time>
      </trkpt>
      <trkpt lat="42.35733" lon="0.23213">
        <ele>979</ele>
        <time>2018-05-06T08:35:41Z</time>
      </trkpt>
      <trkpt lat="42.35715" lon="0.23217">
        <ele>978.5</ele>
        <time>2018-05-06T08:35:46Z</time>
      </trkpt>
      <trkpt lat="42.35708" lon="0.23213">
        <ele>978.3</ele>
        <time>2018-05-06T08:35:49Z</time>
      </trkpt>
      <trkpt lat="42.35706" lon="0.23205">
        <ele>978.3</ele>
        <time>2018-05-06T08:35:55Z</time>
      </trkpt>
      <trkpt lat="42.35723" lon="0.23194">
        <ele>978</ele>
        <time>2018-05-06T08:36:13Z</time>
      </trkpt>
      <trkpt lat="42.35736" lon="0.23192">
        <ele>978.8</ele>
        <time>2018-05-06T08:36:16Z</time>
      </trkpt>
      <trkpt lat="42.35754" lon="0.23184">
        <ele>979.1</ele>
        <time>2018-05-06T08:36:21Z</time>
      </trkpt>
      <trkpt lat="42.35757" lon="0.23183">
        <ele>979.5</ele>
        <time>2018-05-06T08:36:22Z</time>
      </trkpt>
      <trkpt lat="42.35775" lon="0.23172">
        <ele>980.6</ele>
        <time>2018-05-06T08:36:31Z</time>
      </trkpt>
      <trkpt lat="42.35793" lon="0.23161">
        <ele>983.5</ele>
        <time>2018-05-06T08:36:38Z</time>
      </trkpt>
      <trkpt lat="42.35801" lon="0.23156">
        <ele>985</ele>
        <time>2018-05-06T08:36:43Z</time>
      </trkpt>
      <trkpt lat="42.35819" lon="0.23142">
        <ele>987.1</ele>
        <time>2018-05-06T08:36:58Z</time>
      </trkpt>
      <trkpt lat="42.35836" lon="0.23135">
        <ele>990.2</ele>
        <time>2018-05-06T08:37:21Z</time>
      </trkpt>
      <trkpt lat="42.35849" lon="0.23127">
        <ele>991.5</ele>
        <time>2018-05-06T08:37:29Z</time>
      </trkpt>
      <trkpt lat="42.35867" lon="0.23116">
        <ele>993.2</ele>
        <time>2018-05-06T08:37:40Z</time>
      </trkpt>
      <trkpt lat="42.35885" lon="0.23107">
        <ele>993.9</ele>
        <time>2018-05-06T08:37:50Z</time>
      </trkpt>
      <trkpt lat="42.35904" lon="0.231">
        <ele>993.1</ele>
        <time>2018-05-06T08:37:58Z</time>
      </trkpt>
      <trkpt lat="42.35923" lon="0.23094">
        <ele>992.8</ele>
        <time>2018-05-06T08:38:06Z</time>
      </trkpt>
      <trkpt lat="42.35941" lon="0.23089">
        <ele>991.7</ele>
        <time>2018-05-06T08:38:14Z</time>
      </trkpt>
      <trkpt lat="42.35959" lon="0.23087">
        <ele>990.2</ele>
        <time>2018-05-06T08:38:25Z</time>
      </trkpt>
      <trkpt lat="42.35973" lon="0.23088">
        <ele>989.6</ele>
        <time>2018-05-06T08:38:48Z</time>
      </trkpt>
      <trkpt lat="42.3598" lon="0.23106">
        <ele>992.3</ele>
        <time>2018-05-06T08:38:54Z</time>
      </trkpt>
      <trkpt lat="42.3598" lon="0.23112">
        <ele>992.8</ele>
        <time>2018-05-06T08:38:56Z</time>
      </trkpt>
      <trkpt lat="42.35982" lon="0.23117">
        <ele>991.7</ele>
        <time>2018-05-06T08:39:20Z</time>
      </trkpt>
      <trkpt lat="42.36" lon="0.23105">
        <ele>986.8</ele>
        <time>2018-05-06T08:39:27Z</time>
      </trkpt>
      <trkpt lat="42.36011" lon="0.23094">
        <ele>983.2</ele>
        <time>2018-05-06T08:39:30Z</time>
      </trkpt>
      <trkpt lat="42.36025" lon="0.23079">
        <ele>979.4</ele>
        <time>2018-05-06T08:39:33Z</time>
      </trkpt>
      <trkpt lat="42.36042" lon="0.23062">
        <ele>974.3</ele>
        <time>2018-05-06T08:39:37Z</time>
      </trkpt>
      <trkpt lat="42.36047" lon="0.23058">
        <ele>973.2</ele>
        <time>2018-05-06T08:39:38Z</time>
      </trkpt>
      <trkpt lat="42.36064" lon="0.23046">
        <ele>969.8</ele>
        <time>2018-05-06T08:39:42Z</time>
      </trkpt>
      <trkpt lat="42.36082" lon="0.2303">
        <ele>971.5</ele>
        <time>2018-05-06T08:39:53Z</time>
      </trkpt>
      <trkpt lat="42.36093" lon="0.23021">
        <ele>971.4</ele>
        <time>2018-05-06T08:39:56Z</time>
      </trkpt>
      <trkpt lat="42.36105" lon="0.23011">
        <ele>967.9</ele>
        <time>2018-05-06T08:39:59Z</time>
      </trkpt>
      <trkpt lat="42.36123" lon="0.22999">
        <ele>962.4</ele>
        <time>2018-05-06T08:40:04Z</time>
      </trkpt>
      <trkpt lat="42.36141" lon="0.22994">
        <ele>956.4</ele>
        <time>2018-05-06T08:40:11Z</time>
      </trkpt>
      <trkpt lat="42.36158" lon="0.22988">
        <ele>950</ele>
        <time>2018-05-06T08:40:19Z</time>
      </trkpt>
      <trkpt lat="42.36166" lon="0.22965">
        <ele>948.4</ele>
        <time>2018-05-06T08:40:28Z</time>
      </trkpt>
      <trkpt lat="42.36172" lon="0.22953">
        <ele>946.6</ele>
        <time>2018-05-06T08:40:40Z</time>
      </trkpt>
      <trkpt lat="42.36181" lon="0.2295">
        <ele>945.2</ele>
        <time>2018-05-06T08:40:46Z</time>
      </trkpt>
      <trkpt lat="42.36199" lon="0.22942">
        <ele>942.4</ele>
        <time>2018-05-06T08:40:53Z</time>
      </trkpt>
      <trkpt lat="42.36215" lon="0.22936">
        <ele>939.9</ele>
        <time>2018-05-06T08:40:57Z</time>
      </trkpt>
      <trkpt lat="42.36226" lon="0.22933">
        <ele>937.4</ele>
        <time>2018-05-06T08:41:00Z</time>
      </trkpt>
      <trkpt lat="42.36245" lon="0.22932">
        <ele>935.5</ele>
        <time>2018-05-06T08:41:06Z</time>
      </trkpt>
      <trkpt lat="42.36256" lon="0.22931">
        <ele>934.9</ele>
        <time>2018-05-06T08:41:09Z</time>
      </trkpt>
      <trkpt lat="42.36268" lon="0.22929">
        <ele>933.4</ele>
        <time>2018-05-06T08:41:13Z</time>
      </trkpt>
      <trkpt lat="42.36277" lon="0.22919">
        <ele>931</ele>
        <time>2018-05-06T08:41:17Z</time>
      </trkpt>
      <trkpt lat="42.36298" lon="0.22915">
        <ele>928.9</ele>
        <time>2018-05-06T08:41:22Z</time>
      </trkpt>
      <trkpt lat="42.36316" lon="0.22911">
        <ele>927.4</ele>
        <time>2018-05-06T08:41:27Z</time>
      </trkpt>
      <trkpt lat="42.36331" lon="0.22917">
        <ele>928.5</ele>
        <time>2018-05-06T08:41:41Z</time>
      </trkpt>
      <trkpt lat="42.36331" lon="0.2292">
        <ele>928.9</ele>
        <time>2018-05-06T08:41:42Z</time>
      </trkpt>
      <trkpt lat="42.36342" lon="0.22935">
        <ele>929.9</ele>
        <time>2018-05-06T08:41:49Z</time>
      </trkpt>
      <trkpt lat="42.36346" lon="0.2294">
        <ele>929.7</ele>
        <time>2018-05-06T08:41:51Z</time>
      </trkpt>
      <trkpt lat="42.3635" lon="0.2296">
        <ele>929.4</ele>
        <time>2018-05-06T08:41:56Z</time>
      </trkpt>
      <trkpt lat="42.36347" lon="0.22974">
        <ele>929.8</ele>
        <time>2018-05-06T08:41:59Z</time>
      </trkpt>
      <trkpt lat="42.36348" lon="0.2299">
        <ele>929.7</ele>
        <time>2018-05-06T08:42:03Z</time>
      </trkpt>
      <trkpt lat="42.36367" lon="0.22986">
        <ele>927.2</ele>
        <time>2018-05-06T08:42:10Z</time>
      </trkpt>
      <trkpt lat="42.36381" lon="0.22984">
        <ele>926.1</ele>
        <time>2018-05-06T08:42:13Z</time>
      </trkpt>
      <trkpt lat="42.36396" lon="0.22987">
        <ele>923.8</ele>
        <time>2018-05-06T08:42:17Z</time>
      </trkpt>
      <trkpt lat="42.36412" lon="0.22984">
        <ele>922.3</ele>
        <time>2018-05-06T08:42:21Z</time>
      </trkpt>
      <trkpt lat="42.36431" lon="0.22978">
        <ele>919.8</ele>
        <time>2018-05-06T08:42:25Z</time>
      </trkpt>
      <trkpt lat="42.3645" lon="0.22975">
        <ele>917.3</ele>
        <time>2018-05-06T08:42:29Z</time>
      </trkpt>
      <trkpt lat="42.36469" lon="0.22964">
        <ele>916.5</ele>
        <time>2018-05-06T08:42:35Z</time>
      </trkpt>
      <trkpt lat="42.36485" lon="0.22951">
        <ele>916</ele>
        <time>2018-05-06T08:42:41Z</time>
      </trkpt>
      <trkpt lat="42.36494" lon="0.22944">
        <ele>915.4</ele>
        <time>2018-05-06T08:42:45Z</time>
      </trkpt>
      <trkpt lat="42.36512" lon="0.22935">
        <ele>913</ele>
        <time>2018-05-06T08:42:50Z</time>
      </trkpt>
      <trkpt lat="42.36523" lon="0.22929">
        <ele>912.8</ele>
        <time>2018-05-06T08:42:52Z</time>
      </trkpt>
      <trkpt lat="42.3654" lon="0.22918">
        <ele>909.7</ele>
        <time>2018-05-06T08:43:00Z</time>
      </trkpt>
      <trkpt lat="42.3656" lon="0.22907">
        <ele>906.7</ele>
        <time>2018-05-06T08:43:08Z</time>
      </trkpt>
      <trkpt lat="42.36578" lon="0.22899">
        <ele>903.6</ele>
        <time>2018-05-06T08:43:15Z</time>
      </trkpt>
      <trkpt lat="42.36597" lon="0.22883">
        <ele>900.5</ele>
        <time>2018-05-06T08:43:21Z</time>
      </trkpt>
      <trkpt lat="42.36614" lon="0.22875">
        <ele>897.5</ele>
        <time>2018-05-06T08:43:28Z</time>
      </trkpt>
      <trkpt lat="42.36617" lon="0.22875">
        <ele>897</ele>
        <time>2018-05-06T08:43:29Z</time>
      </trkpt>
      <trkpt lat="42.36636" lon="0.22877">
        <ele>892.8</ele>
        <time>2018-05-06T08:43:34Z</time>
      </trkpt>
      <trkpt lat="42.36654" lon="0.22876">
        <ele>888.1</ele>
        <time>2018-05-06T08:43:39Z</time>
      </trkpt>
      <trkpt lat="42.36673" lon="0.22876">
        <ele>882.6</ele>
        <time>2018-05-06T08:43:44Z</time>
      </trkpt>
      <trkpt lat="42.36695" lon="0.22873">
        <ele>876.9</ele>
        <time>2018-05-06T08:43:49Z</time>
      </trkpt>
      <trkpt lat="42.36715" lon="0.22868">
        <ele>872.4</ele>
        <time>2018-05-06T08:43:54Z</time>
      </trkpt>
      <trkpt lat="42.36728" lon="0.22866">
        <ele>869.4</ele>
        <time>2018-05-06T08:43:58Z</time>
      </trkpt>
      <trkpt lat="42.36745" lon="0.2287">
        <ele>865.6</ele>
        <time>2018-05-06T08:44:03Z</time>
      </trkpt>
      <trkpt lat="42.36749" lon="0.22869">
        <ele>865.1</ele>
        <time>2018-05-06T08:44:04Z</time>
      </trkpt>
      <trkpt lat="42.36766" lon="0.22867">
        <ele>860.2</ele>
        <time>2018-05-06T08:44:09Z</time>
      </trkpt>
      <trkpt lat="42.36786" lon="0.22861">
        <ele>855.7</ele>
        <time>2018-05-06T08:44:16Z</time>
      </trkpt>
      <trkpt lat="42.36801" lon="0.22856">
        <ele>852.2</ele>
        <time>2018-05-06T08:44:22Z</time>
      </trkpt>
      <trkpt lat="42.36819" lon="0.22845">
        <ele>846.5</ele>
        <time>2018-05-06T08:44:28Z</time>
      </trkpt>
      <trkpt lat="42.36836" lon="0.22838">
        <ele>841</ele>
        <time>2018-05-06T08:44:35Z</time>
      </trkpt>
      <trkpt lat="42.36844" lon="0.22828">
        <ele>837.7</ele>
        <time>2018-05-06T08:44:40Z</time>
      </trkpt>
      <trkpt lat="42.36864" lon="0.22835">
        <ele>833.2</ele>
        <time>2018-05-06T08:44:48Z</time>
      </trkpt>
      <trkpt lat="42.36871" lon="0.22831">
        <ele>831.9</ele>
        <time>2018-05-06T08:44:51Z</time>
      </trkpt>
      <trkpt lat="42.36885" lon="0.22831">
        <ele>828.8</ele>
        <time>2018-05-06T08:44:58Z</time>
      </trkpt>
      <trkpt lat="42.36889" lon="0.22832">
        <ele>827.3</ele>
        <time>2018-05-06T08:45:01Z</time>
      </trkpt>
      <trkpt lat="42.36895" lon="0.22832">
        <ele>825.8</ele>
        <time>2018-05-06T08:45:04Z</time>
      </trkpt>
      <trkpt lat="42.36901" lon="0.22836">
        <ele>825.6</ele>
        <time>2018-05-06T08:45:08Z</time>
      </trkpt>
      <trkpt lat="42.3691" lon="0.2284">
        <ele>823.9</ele>
        <time>2018-05-06T08:45:12Z</time>
      </trkpt>
      <trkpt lat="42.36912" lon="0.22842">
        <ele>823.5</ele>
        <time>2018-05-06T08:45:13Z</time>
      </trkpt>
      <trkpt lat="42.36927" lon="0.2285">
        <ele>820.1</ele>
        <time>2018-05-06T08:45:19Z</time>
      </trkpt>
      <trkpt lat="42.36947" lon="0.22839">
        <ele>814.1</ele>
        <time>2018-05-06T08:45:32Z</time>
      </trkpt>
      <trkpt lat="42.36965" lon="0.22846">
        <ele>809.7</ele>
        <time>2018-05-06T08:45:39Z</time>
      </trkpt>
      <trkpt lat="42.36973" lon="0.22849">
        <ele>808.4</ele>
        <time>2018-05-06T08:45:42Z</time>
      </trkpt>
      <trkpt lat="42.36982" lon="0.22839">
        <ele>804.8</ele>
        <time>2018-05-06T08:45:48Z</time>
      </trkpt>
      <trkpt lat="42.36984" lon="0.22823">
        <ele>802.6</ele>
        <time>2018-05-06T08:45:54Z</time>
      </trkpt>
      <trkpt lat="42.36998" lon="0.22823">
        <ele>798.6</ele>
        <time>2018-05-06T08:46:00Z</time>
      </trkpt>
      <trkpt lat="42.37016" lon="0.22822">
        <ele>791.7</ele>
        <time>2018-05-06T08:46:11Z</time>
      </trkpt>
      <trkpt lat="42.3702" lon="0.22824">
        <ele>791.6</ele>
        <time>2018-05-06T08:46:13Z</time>
      </trkpt>
      <trkpt lat="42.37031" lon="0.22825">
        <ele>788.8</ele>
        <time>2018-05-06T08:46:18Z</time>
      </trkpt>
      <trkpt lat="42.37032" lon="0.22819">
        <ele>787.6</ele>
        <time>2018-05-06T08:46:25Z</time>
      </trkpt>
      <trkpt lat="42.37031" lon="0.22802">
        <ele>785.5</ele>
        <time>2018-05-06T08:46:30Z</time>
      </trkpt>
      <trkpt lat="42.37032" lon="0.22794">
        <ele>784.7</ele>
        <time>2018-05-06T08:46:33Z</time>
      </trkpt>
      <trkpt lat="42.37048" lon="0.22784">
        <ele>779.5</ele>
        <time>2018-05-06T08:46:43Z</time>
      </trkpt>
      <trkpt lat="42.37054" lon="0.22786">
        <ele>778.5</ele>
        <time>2018-05-06T08:46:46Z</time>
      </trkpt>
      <trkpt lat="42.37065" lon="0.22791">
        <ele>777.5</ele>
        <time>2018-05-06T08:46:50Z</time>
      </trkpt>
      <trkpt lat="42.37073" lon="0.22813">
        <ele>779.9</ele>
        <time>2018-05-06T08:46:56Z</time>
      </trkpt>
      <trkpt lat="42.37075" lon="0.22816">
        <ele>780.3</ele>
        <time>2018-05-06T08:46:58Z</time>
      </trkpt>
      <trkpt lat="42.37078" lon="0.22827">
        <ele>781.3</ele>
        <time>2018-05-06T08:47:05Z</time>
      </trkpt>
      <trkpt lat="42.37087" lon="0.2285">
        <ele>783.2</ele>
        <time>2018-05-06T08:47:18Z</time>
      </trkpt>
      <trkpt lat="42.37089" lon="0.22876">
        <ele>784.9</ele>
        <time>2018-05-06T08:47:28Z</time>
      </trkpt>
      <trkpt lat="42.37087" lon="0.22902">
        <ele>786.3</ele>
        <time>2018-05-06T08:47:38Z</time>
      </trkpt>
      <trkpt lat="42.37079" lon="0.22925">
        <ele>787.8</ele>
        <time>2018-05-06T08:47:48Z</time>
      </trkpt>
      <trkpt lat="42.37065" lon="0.22941">
        <ele>789.1</ele>
        <time>2018-05-06T08:47:57Z</time>
      </trkpt>
      <trkpt lat="42.37048" lon="0.22953">
        <ele>790.4</ele>
        <time>2018-05-06T08:48:06Z</time>
      </trkpt>
      <trkpt lat="42.37032" lon="0.22967">
        <ele>791.7</ele>
        <time>2018-05-06T08:48:15Z</time>
      </trkpt>
      <trkpt lat="42.37017" lon="0.22986">
        <ele>793.1</ele>
        <time>2018-05-06T08:48:23Z</time>
      </trkpt>
      <trkpt lat="42.37007" lon="0.23008">
        <ele>794</ele>
        <time>2018-05-06T08:48:30Z</time>
      </trkpt>
      <trkpt lat="42.36991" lon="0.23027">
        <ele>794.8</ele>
        <time>2018-05-06T08:48:39Z</time>
      </trkpt>
      <trkpt lat="42.36975" lon="0.23045">
        <ele>795.4</ele>
        <time>2018-05-06T08:48:45Z</time>
      </trkpt>
      <trkpt lat="42.36962" lon="0.23066">
        <ele>795.8</ele>
        <time>2018-05-06T08:48:50Z</time>
      </trkpt>
      <trkpt lat="42.36949" lon="0.23086">
        <ele>796.3</ele>
        <time>2018-05-06T08:48:55Z</time>
      </trkpt>
      <trkpt lat="42.36932" lon="0.23101">
        <ele>796.7</ele>
        <time>2018-05-06T08:49:01Z</time>
      </trkpt>
      <trkpt lat="42.36913" lon="0.23107">
        <ele>797</ele>
        <time>2018-05-06T08:49:07Z</time>
      </trkpt>
      <trkpt lat="42.36893" lon="0.23112">
        <ele>797.3</ele>
        <time>2018-05-06T08:49:13Z</time>
      </trkpt>
      <trkpt lat="42.36877" lon="0.2313">
        <ele>797.8</ele>
        <time>2018-05-06T08:49:18Z</time>
      </trkpt>
      <trkpt lat="42.36871" lon="0.23153">
        <ele>798.2</ele>
        <time>2018-05-06T08:49:23Z</time>
      </trkpt>
      <trkpt lat="42.36856" lon="0.23174">
        <ele>798.8</ele>
        <time>2018-05-06T08:49:30Z</time>
      </trkpt>
      <trkpt lat="42.36851" lon="0.23182">
        <ele>799.1</ele>
        <time>2018-05-06T08:49:32Z</time>
      </trkpt>
      <trkpt lat="42.36838" lon="0.23204">
        <ele>799.7</ele>
        <time>2018-05-06T08:49:37Z</time>
      </trkpt>
      <trkpt lat="42.36825" lon="0.23226">
        <ele>800.4</ele>
        <time>2018-05-06T08:49:43Z</time>
      </trkpt>
      <trkpt lat="42.36813" lon="0.23248">
        <ele>801.3</ele>
        <time>2018-05-06T08:49:49Z</time>
      </trkpt>
      <trkpt lat="42.36799" lon="0.23268">
        <ele>802.3</ele>
        <time>2018-05-06T08:49:55Z</time>
      </trkpt>
      <trkpt lat="42.36782" lon="0.23282">
        <ele>803.6</ele>
        <time>2018-05-06T08:50:02Z</time>
      </trkpt>
      <trkpt lat="42.36766" lon="0.23293">
        <ele>804.8</ele>
        <time>2018-05-06T08:50:09Z</time>
      </trkpt>
      <trkpt lat="42.36749" lon="0.23301">
        <ele>805.8</ele>
        <time>2018-05-06T08:50:15Z</time>
      </trkpt>
      <trkpt lat="42.3673" lon="0.23302">
        <ele>806.4</ele>
        <time>2018-05-06T08:50:21Z</time>
      </trkpt>
      <trkpt lat="42.36711" lon="0.23304">
        <ele>806.7</ele>
        <time>2018-05-06T08:50:27Z</time>
      </trkpt>
      <trkpt lat="42.36691" lon="0.23303">
        <ele>806.9</ele>
        <time>2018-05-06T08:50:32Z</time>
      </trkpt>
      <trkpt lat="42.36679" lon="0.23321">
        <ele>807.3</ele>
        <time>2018-05-06T08:50:38Z</time>
      </trkpt>
      <trkpt lat="42.36678" lon="0.23347">
        <ele>808.5</ele>
        <time>2018-05-06T08:50:47Z</time>
      </trkpt>
      <trkpt lat="42.367" lon="0.23357">
        <ele>802.2</ele>
        <time>2018-05-06T08:51:39Z</time>
      </trkpt>
      <trkpt lat="42.36712" lon="0.2336">
        <ele>798.4</ele>
        <time>2018-05-06T08:51:42Z</time>
      </trkpt>
      <trkpt lat="42.36729" lon="0.23373">
        <ele>791.9</ele>
        <time>2018-05-06T08:51:48Z</time>
      </trkpt>
      <trkpt lat="42.36731" lon="0.23376">
        <ele>790.3</ele>
        <time>2018-05-06T08:51:49Z</time>
      </trkpt>
      <trkpt lat="42.36741" lon="0.23388">
        <ele>786.1</ele>
        <time>2018-05-06T08:51:54Z</time>
      </trkpt>
      <trkpt lat="42.36759" lon="0.23391">
        <ele>778.3</ele>
        <time>2018-05-06T08:52:01Z</time>
      </trkpt>
      <trkpt lat="42.36765" lon="0.23396">
        <ele>775.2</ele>
        <time>2018-05-06T08:52:05Z</time>
      </trkpt>
      <trkpt lat="42.36786" lon="0.234">
        <ele>767.2</ele>
        <time>2018-05-06T08:52:12Z</time>
      </trkpt>
      <trkpt lat="42.36806" lon="0.23404">
        <ele>759.6</ele>
        <time>2018-05-06T08:52:18Z</time>
      </trkpt>
      <trkpt lat="42.36812" lon="0.23406">
        <ele>757.8</ele>
        <time>2018-05-06T08:52:20Z</time>
      </trkpt>
      <trkpt lat="42.3683" lon="0.23407">
        <ele>752.7</ele>
        <time>2018-05-06T08:52:26Z</time>
      </trkpt>
      <trkpt lat="42.3685" lon="0.23404">
        <ele>748.2</ele>
        <time>2018-05-06T08:52:32Z</time>
      </trkpt>
      <trkpt lat="42.36868" lon="0.23404">
        <ele>745.2</ele>
        <time>2018-05-06T08:52:40Z</time>
      </trkpt>
      <trkpt lat="42.36876" lon="0.23404">
        <ele>743.4</ele>
        <time>2018-05-06T08:52:45Z</time>
      </trkpt>
      <trkpt lat="42.36892" lon="0.23407">
        <ele>738.7</ele>
        <time>2018-05-06T08:52:53Z</time>
      </trkpt>
      <trkpt lat="42.36894" lon="0.23413">
        <ele>737.9</ele>
        <time>2018-05-06T08:52:56Z</time>
      </trkpt>
      <trkpt lat="42.36897" lon="0.23437">
        <ele>733.2</ele>
        <time>2018-05-06T08:53:22Z</time>
      </trkpt>
      <trkpt lat="42.36898" lon="0.23457">
        <ele>730</ele>
        <time>2018-05-06T08:54:20Z</time>
      </trkpt>
      <trkpt lat="42.36907" lon="0.23477">
        <ele>726.1</ele>
        <time>2018-05-06T08:55:38Z</time>
      </trkpt>
      <trkpt lat="42.36911" lon="0.23485">
        <ele>723.6</ele>
        <time>2018-05-06T08:55:41Z</time>
      </trkpt>
      <trkpt lat="42.36914" lon="0.23501">
        <ele>720.6</ele>
        <time>2018-05-06T08:55:47Z</time>
      </trkpt>
      <trkpt lat="42.36921" lon="0.23521">
        <ele>716.7</ele>
        <time>2018-05-06T08:56:39Z</time>
      </trkpt>
      <trkpt lat="42.36924" lon="0.23531">
        <ele>714.3</ele>
        <time>2018-05-06T08:56:44Z</time>
      </trkpt>
      <trkpt lat="42.36937" lon="0.23547">
        <ele>709.6</ele>
        <time>2018-05-06T08:56:56Z</time>
      </trkpt>
      <trkpt lat="42.36939" lon="0.23547">
        <ele>709.6</ele>
        <time>2018-05-06T08:56:57Z</time>
      </trkpt>
      <trkpt lat="42.36945" lon="0.23545">
        <ele>706.8</ele>
        <time>2018-05-06T08:57:01Z</time>
      </trkpt>
      <trkpt lat="42.36959" lon="0.23559">
        <ele>702.3</ele>
        <time>2018-05-06T08:57:08Z</time>
      </trkpt>
      <trkpt lat="42.36963" lon="0.23566">
        <ele>700.8</ele>
        <time>2018-05-06T08:57:11Z</time>
      </trkpt>
      <trkpt lat="42.3697" lon="0.23567">
        <ele>699</ele>
        <time>2018-05-06T08:57:30Z</time>
      </trkpt>
      <trkpt lat="42.36983" lon="0.23583">
        <ele>694</ele>
        <time>2018-05-06T08:57:52Z</time>
      </trkpt>
      <trkpt lat="42.36988" lon="0.23608">
        <ele>690.9</ele>
        <time>2018-05-06T08:57:59Z</time>
      </trkpt>
      <trkpt lat="42.36991" lon="0.23614">
        <ele>689.9</ele>
        <time>2018-05-06T08:58:01Z</time>
      </trkpt>
      <trkpt lat="42.37011" lon="0.23612">
        <ele>685.5</ele>
        <time>2018-05-06T08:58:08Z</time>
      </trkpt>
      <trkpt lat="42.37013" lon="0.23612">
        <ele>684.9</ele>
        <time>2018-05-06T08:58:09Z</time>
      </trkpt>
      <trkpt lat="42.37028" lon="0.23626">
        <ele>681.7</ele>
        <time>2018-05-06T08:58:14Z</time>
      </trkpt>
      <trkpt lat="42.37032" lon="0.23649">
        <ele>681.4</ele>
        <time>2018-05-06T08:58:18Z</time>
      </trkpt>
      <trkpt lat="42.37035" lon="0.2367">
        <ele>681.6</ele>
        <time>2018-05-06T08:58:25Z</time>
      </trkpt>
      <trkpt lat="42.37042" lon="0.23695">
        <ele>683.1</ele>
        <time>2018-05-06T08:58:33Z</time>
      </trkpt>
      <trkpt lat="42.37044" lon="0.23703">
        <ele>683.7</ele>
        <time>2018-05-06T08:58:35Z</time>
      </trkpt>
      <trkpt lat="42.37045" lon="0.23706">
        <ele>683.7</ele>
        <time>2018-05-06T08:58:36Z</time>
      </trkpt>
      <trkpt lat="42.37051" lon="0.23709">
        <ele>684</ele>
        <time>2018-05-06T08:58:40Z</time>
      </trkpt>
      <trkpt lat="42.37053" lon="0.23703">
        <ele>683.4</ele>
        <time>2018-05-06T08:58:44Z</time>
      </trkpt>
      <trkpt lat="42.37054" lon="0.23679">
        <ele>680.7</ele>
        <time>2018-05-06T08:59:30Z</time>
      </trkpt>
      <trkpt lat="42.37056" lon="0.23653">
        <ele>678.8</ele>
        <time>2018-05-06T08:59:44Z</time>
      </trkpt>
      <trkpt lat="42.37056" lon="0.23652">
        <ele>678.6</ele>
        <time>2018-05-06T08:59:45Z</time>
      </trkpt>
      <trkpt lat="42.37062" lon="0.23652">
        <ele>678.3</ele>
        <time>2018-05-06T08:59:49Z</time>
      </trkpt>
      <trkpt lat="42.37064" lon="0.23652">
        <ele>678</ele>
        <time>2018-05-06T08:59:50Z</time>
      </trkpt>
      <trkpt lat="42.37062" lon="0.23662">
        <ele>678.8</ele>
        <time>2018-05-06T08:59:54Z</time>
      </trkpt>
      <trkpt lat="42.3707" lon="0.23683">
        <ele>680.5</ele>
        <time>2018-05-06T09:00:06Z</time>
      </trkpt>
      <trkpt lat="42.37087" lon="0.23691">
        <ele>680.9</ele>
        <time>2018-05-06T09:00:21Z</time>
      </trkpt>
      <trkpt lat="42.37105" lon="0.23685">
        <ele>678.9</ele>
        <time>2018-05-06T09:00:33Z</time>
      </trkpt>
      <trkpt lat="42.37109" lon="0.23662">
        <ele>676.2</ele>
        <time>2018-05-06T09:00:44Z</time>
      </trkpt>
      <trkpt lat="42.37105" lon="0.23641">
        <ele>674.6</ele>
        <time>2018-05-06T09:01:24Z</time>
      </trkpt>
      <trkpt lat="42.3709" lon="0.23623">
        <ele>674</ele>
        <time>2018-05-06T09:01:33Z</time>
      </trkpt>
      <trkpt lat="42.37083" lon="0.23601">
        <ele>672.9</ele>
        <time>2018-05-06T09:01:43Z</time>
      </trkpt>
      <trkpt lat="42.37082" lon="0.23578">
        <ele>671.9</ele>
        <time>2018-05-06T09:01:51Z</time>
      </trkpt>
      <trkpt lat="42.37099" lon="0.23571">
        <ele>668.5</ele>
        <time>2018-05-06T09:01:59Z</time>
      </trkpt>
      <trkpt lat="42.37104" lon="0.2357">
        <ele>668.1</ele>
        <time>2018-05-06T09:02:01Z</time>
      </trkpt>
      <trkpt lat="42.37124" lon="0.2357">
        <ele>667</ele>
        <time>2018-05-06T09:02:10Z</time>
      </trkpt>
      <trkpt lat="42.37142" lon="0.23566">
        <ele>667.1</ele>
        <time>2018-05-06T09:02:19Z</time>
      </trkpt>
      <trkpt lat="42.37156" lon="0.23552">
        <ele>667.2</ele>
        <time>2018-05-06T09:02:26Z</time>
      </trkpt>
      <trkpt lat="42.37159" lon="0.23548">
        <ele>667.5</ele>
        <time>2018-05-06T09:02:28Z</time>
      </trkpt>
      <trkpt lat="42.37166" lon="0.2354">
        <ele>667.7</ele>
        <time>2018-05-06T09:02:32Z</time>
      </trkpt>
      <trkpt lat="42.37171" lon="0.23537">
        <ele>668</ele>
        <time>2018-05-06T09:02:35Z</time>
      </trkpt>
      <trkpt lat="42.3718" lon="0.23546">
        <ele>667.9</ele>
        <time>2018-05-06T09:02:41Z</time>
      </trkpt>
      <trkpt lat="42.37182" lon="0.23546">
        <ele>667.8</ele>
        <time>2018-05-06T09:02:42Z</time>
      </trkpt>
      <trkpt lat="42.37189" lon="0.23551">
        <ele>668</ele>
        <time>2018-05-06T09:02:53Z</time>
      </trkpt>
      <trkpt lat="42.37207" lon="0.23557">
        <ele>668.5</ele>
        <time>2018-05-06T09:03:07Z</time>
      </trkpt>
      <trkpt lat="42.37224" lon="0.23549">
        <ele>668.8</ele>
        <time>2018-05-06T09:03:19Z</time>
      </trkpt>
      <trkpt lat="42.37236" lon="0.23532">
        <ele>667.9</ele>
        <time>2018-05-06T09:03:29Z</time>
      </trkpt>
      <trkpt lat="42.37246" lon="0.23511">
        <ele>666.5</ele>
        <time>2018-05-06T09:03:38Z</time>
      </trkpt>
      <trkpt lat="42.37258" lon="0.23504">
        <ele>666.1</ele>
        <time>2018-05-06T09:03:45Z</time>
      </trkpt>
      <trkpt lat="42.3726" lon="0.23489">
        <ele>666.5</ele>
        <time>2018-05-06T09:04:20Z</time>
      </trkpt>
      <trkpt lat="42.37269" lon="0.2348">
        <ele>666.1</ele>
        <time>2018-05-06T09:04:28Z</time>
      </trkpt>
      <trkpt lat="42.37286" lon="0.23465">
        <ele>665.9</ele>
        <time>2018-05-06T09:04:38Z</time>
      </trkpt>
      <trkpt lat="42.37302" lon="0.23453">
        <ele>665.4</ele>
        <time>2018-05-06T09:04:47Z</time>
      </trkpt>
      <trkpt lat="42.37311" lon="0.23471">
        <ele>663.7</ele>
        <time>2018-05-06T09:04:58Z</time>
      </trkpt>
      <trkpt lat="42.3731" lon="0.23479">
        <ele>663.7</ele>
        <time>2018-05-06T09:05:01Z</time>
      </trkpt>
      <trkpt lat="42.37324" lon="0.23494">
        <ele>664.7</ele>
        <time>2018-05-06T09:05:12Z</time>
      </trkpt>
      <trkpt lat="42.3734" lon="0.23481">
        <ele>664</ele>
        <time>2018-05-06T09:06:19Z</time>
      </trkpt>
      <trkpt lat="42.3735" lon="0.23459">
        <ele>662.7</ele>
        <time>2018-05-06T09:06:29Z</time>
      </trkpt>
      <trkpt lat="42.37363" lon="0.23444">
        <ele>661.7</ele>
        <time>2018-05-06T09:06:39Z</time>
      </trkpt>
      <trkpt lat="42.37382" lon="0.23439">
        <ele>661</ele>
        <time>2018-05-06T09:06:49Z</time>
      </trkpt>
      <trkpt lat="42.374" lon="0.23445">
        <ele>661</ele>
        <time>2018-05-06T09:07:01Z</time>
      </trkpt>
      <trkpt lat="42.37418" lon="0.23441">
        <ele>661.5</ele>
        <time>2018-05-06T09:07:14Z</time>
      </trkpt>
      <trkpt lat="42.3742" lon="0.23425">
        <ele>659.7</ele>
        <time>2018-05-06T09:07:23Z</time>
      </trkpt>
      <trkpt lat="42.3741" lon="0.23403">
        <ele>658</ele>
        <time>2018-05-06T09:07:37Z</time>
      </trkpt>
      <trkpt lat="42.37404" lon="0.23381">
        <ele>657.8</ele>
        <time>2018-05-06T09:07:51Z</time>
      </trkpt>
      <trkpt lat="42.37401" lon="0.23369">
        <ele>658.2</ele>
        <time>2018-05-06T09:07:56Z</time>
      </trkpt>
      <trkpt lat="42.37398" lon="0.23361">
        <ele>658.8</ele>
        <time>2018-05-06T09:08:00Z</time>
      </trkpt>
      <trkpt lat="42.37398" lon="0.23337">
        <ele>659.7</ele>
        <time>2018-05-06T09:08:31Z</time>
      </trkpt>
      <trkpt lat="42.37413" lon="0.23325">
        <ele>658.2</ele>
        <time>2018-05-06T09:08:44Z</time>
      </trkpt>
      <trkpt lat="42.37432" lon="0.23328">
        <ele>655.8</ele>
        <time>2018-05-06T09:08:55Z</time>
      </trkpt>
      <trkpt lat="42.3745" lon="0.23323">
        <ele>654</ele>
        <time>2018-05-06T09:09:05Z</time>
      </trkpt>
      <trkpt lat="42.3746" lon="0.23328">
        <ele>653.1</ele>
        <time>2018-05-06T09:09:11Z</time>
      </trkpt>
      <trkpt lat="42.37478" lon="0.23321">
        <ele>651.1</ele>
        <time>2018-05-06T09:09:21Z</time>
      </trkpt>
      <trkpt lat="42.37484" lon="0.23314">
        <ele>650.6</ele>
        <time>2018-05-06T09:09:24Z</time>
      </trkpt>
      <trkpt lat="42.37487" lon="0.23305">
        <ele>650.6</ele>
        <time>2018-05-06T09:09:28Z</time>
      </trkpt>
      <trkpt lat="42.37485" lon="0.23298">
        <ele>651.3</ele>
        <time>2018-05-06T09:09:36Z</time>
      </trkpt>
      <trkpt lat="42.37485" lon="0.2328">
        <ele>652.3</ele>
        <time>2018-05-06T09:09:54Z</time>
      </trkpt>
      <trkpt lat="42.37502" lon="0.23276">
        <ele>651.3</ele>
        <time>2018-05-06T09:10:08Z</time>
      </trkpt>
      <trkpt lat="42.3752" lon="0.23284">
        <ele>648.9</ele>
        <time>2018-05-06T09:10:19Z</time>
      </trkpt>
      <trkpt lat="42.37532" lon="0.23284">
        <ele>647.7</ele>
        <time>2018-05-06T09:10:24Z</time>
      </trkpt>
      <trkpt lat="42.37549" lon="0.23272">
        <ele>647.5</ele>
        <time>2018-05-06T09:10:30Z</time>
      </trkpt>
      <trkpt lat="42.37567" lon="0.23269">
        <ele>646.6</ele>
        <time>2018-05-06T09:10:37Z</time>
      </trkpt>
      <trkpt lat="42.37572" lon="0.23279">
        <ele>646.2</ele>
        <time>2018-05-06T09:10:42Z</time>
      </trkpt>
      <trkpt lat="42.37563" lon="0.23294">
        <ele>646.3</ele>
        <time>2018-05-06T09:10:50Z</time>
      </trkpt>
      <trkpt lat="42.37573" lon="0.23314">
        <ele>646.8</ele>
        <time>2018-05-06T09:11:14Z</time>
      </trkpt>
      <trkpt lat="42.37593" lon="0.23316">
        <ele>645.8</ele>
        <time>2018-05-06T09:11:21Z</time>
      </trkpt>
      <trkpt lat="42.37614" lon="0.23311">
        <ele>644.2</ele>
        <time>2018-05-06T09:11:27Z</time>
      </trkpt>
      <trkpt lat="42.37634" lon="0.23303">
        <ele>642.4</ele>
        <time>2018-05-06T09:11:33Z</time>
      </trkpt>
      <trkpt lat="42.37653" lon="0.23292">
        <ele>640.7</ele>
        <time>2018-05-06T09:11:40Z</time>
      </trkpt>
      <trkpt lat="42.37668" lon="0.23277">
        <ele>639.7</ele>
        <time>2018-05-06T09:11:46Z</time>
      </trkpt>
      <trkpt lat="42.37669" lon="0.23258">
        <ele>639</ele>
        <time>2018-05-06T09:11:53Z</time>
      </trkpt>
      <trkpt lat="42.37655" lon="0.23238">
        <ele>639.2</ele>
        <time>2018-05-06T09:12:00Z</time>
      </trkpt>
      <trkpt lat="42.37653" lon="0.23236">
        <ele>639.2</ele>
        <time>2018-05-06T09:12:01Z</time>
      </trkpt>
      <trkpt lat="42.37641" lon="0.23217">
        <ele>641.9</ele>
        <time>2018-05-06T09:12:16Z</time>
      </trkpt>
      <trkpt lat="42.37642" lon="0.23189">
        <ele>645</ele>
        <time>2018-05-06T09:12:25Z</time>
      </trkpt>
      <trkpt lat="42.37658" lon="0.23174">
        <ele>646.3</ele>
        <time>2018-05-06T09:12:31Z</time>
      </trkpt>
      <trkpt lat="42.37678" lon="0.23175">
        <ele>646.4</ele>
        <time>2018-05-06T09:12:36Z</time>
      </trkpt>
      <trkpt lat="42.37697" lon="0.23187">
        <ele>646</ele>
        <time>2018-05-06T09:12:41Z</time>
      </trkpt>
      <trkpt lat="42.37711" lon="0.23203">
        <ele>644.7</ele>
        <time>2018-05-06T09:12:46Z</time>
      </trkpt>
      <trkpt lat="42.37723" lon="0.23221">
        <ele>643</ele>
        <time>2018-05-06T09:12:56Z</time>
      </trkpt>
      <trkpt lat="42.3773" lon="0.23244">
        <ele>640.1</ele>
        <time>2018-05-06T09:13:05Z</time>
      </trkpt>
      <trkpt lat="42.37745" lon="0.23264">
        <ele>639.3</ele>
        <time>2018-05-06T09:13:14Z</time>
      </trkpt>
      <trkpt lat="42.37763" lon="0.23273">
        <ele>640.1</ele>
        <time>2018-05-06T09:13:22Z</time>
      </trkpt>
      <trkpt lat="42.37784" lon="0.23275">
        <ele>641</ele>
        <time>2018-05-06T09:13:29Z</time>
      </trkpt>
      <trkpt lat="42.37804" lon="0.23273">
        <ele>641.4</ele>
        <time>2018-05-06T09:13:38Z</time>
      </trkpt>
      <trkpt lat="42.37822" lon="0.23268">
        <ele>641.2</ele>
        <time>2018-05-06T09:13:43Z</time>
      </trkpt>
      <trkpt lat="42.37842" lon="0.23266">
        <ele>641</ele>
        <time>2018-05-06T09:13:51Z</time>
      </trkpt>
      <trkpt lat="42.37859" lon="0.23267">
        <ele>640.7</ele>
        <time>2018-05-06T09:13:59Z</time>
      </trkpt>
      <trkpt lat="42.37875" lon="0.23278">
        <ele>637.7</ele>
        <time>2018-05-06T09:14:08Z</time>
      </trkpt>
      <trkpt lat="42.37894" lon="0.23281">
        <ele>637.2</ele>
        <time>2018-05-06T09:14:14Z</time>
      </trkpt>
      <trkpt lat="42.37912" lon="0.23292">
        <ele>636.1</ele>
        <time>2018-05-06T09:14:20Z</time>
      </trkpt>
      <trkpt lat="42.37931" lon="0.23287">
        <ele>635.6</ele>
        <time>2018-05-06T09:14:28Z</time>
      </trkpt>
      <trkpt lat="42.37948" lon="0.23294">
        <ele>634.2</ele>
        <time>2018-05-06T09:14:41Z</time>
      </trkpt>
      <trkpt lat="42.37948" lon="0.23296">
        <ele>633.9</ele>
        <time>2018-05-06T09:14:42Z</time>
      </trkpt>
      <trkpt lat="42.37954" lon="0.2332">
        <ele>632.8</ele>
        <time>2018-05-06T09:14:50Z</time>
      </trkpt>
      <trkpt lat="42.37967" lon="0.23339">
        <ele>631.8</ele>
        <time>2018-05-06T09:14:58Z</time>
      </trkpt>
      <trkpt lat="42.37971" lon="0.23342">
        <ele>631.6</ele>
        <time>2018-05-06T09:15:00Z</time>
      </trkpt>
      <trkpt lat="42.37982" lon="0.23343">
        <ele>630.3</ele>
        <time>2018-05-06T09:15:05Z</time>
      </trkpt>
      <trkpt lat="42.38" lon="0.23339">
        <ele>627.9</ele>
        <time>2018-05-06T09:15:14Z</time>
      </trkpt>
      <trkpt lat="42.38018" lon="0.2333">
        <ele>626.5</ele>
        <time>2018-05-06T09:15:23Z</time>
      </trkpt>
      <trkpt lat="42.38036" lon="0.23324">
        <ele>626.3</ele>
        <time>2018-05-06T09:15:36Z</time>
      </trkpt>
      <trkpt lat="42.38047" lon="0.23343">
        <ele>623.7</ele>
        <time>2018-05-06T09:15:46Z</time>
      </trkpt>
      <trkpt lat="42.38046" lon="0.23348">
        <ele>623.5</ele>
        <time>2018-05-06T09:15:48Z</time>
      </trkpt>
      <trkpt lat="42.38052" lon="0.23372">
        <ele>623.9</ele>
        <time>2018-05-06T09:15:56Z</time>
      </trkpt>
      <trkpt lat="42.38068" lon="0.23381">
        <ele>623.6</ele>
        <time>2018-05-06T09:16:04Z</time>
      </trkpt>
      <trkpt lat="42.38087" lon="0.23386">
        <ele>623</ele>
        <time>2018-05-06T09:16:13Z</time>
      </trkpt>
      <trkpt lat="42.38104" lon="0.23395">
        <ele>622.4</ele>
        <time>2018-05-06T09:16:21Z</time>
      </trkpt>
      <trkpt lat="42.38122" lon="0.23401">
        <ele>621.7</ele>
        <time>2018-05-06T09:16:30Z</time>
      </trkpt>
      <trkpt lat="42.38142" lon="0.23405">
        <ele>621.4</ele>
        <time>2018-05-06T09:16:38Z</time>
      </trkpt>
      <trkpt lat="42.38162" lon="0.234">
        <ele>621.1</ele>
        <time>2018-05-06T09:16:44Z</time>
      </trkpt>
      <trkpt lat="42.3818" lon="0.23396">
        <ele>621</ele>
        <time>2018-05-06T09:16:50Z</time>
      </trkpt>
      <trkpt lat="42.38196" lon="0.23406">
        <ele>620.4</ele>
        <time>2018-05-06T09:16:58Z</time>
      </trkpt>
      <trkpt lat="42.38213" lon="0.23419">
        <ele>619.7</ele>
        <time>2018-05-06T09:17:07Z</time>
      </trkpt>
      <trkpt lat="42.38232" lon="0.2342">
        <ele>619.3</ele>
        <time>2018-05-06T09:17:16Z</time>
      </trkpt>
      <trkpt lat="42.38248" lon="0.23409">
        <ele>619.7</ele>
        <time>2018-05-06T09:17:27Z</time>
      </trkpt>
      <trkpt lat="42.38259" lon="0.23411">
        <ele>619</ele>
        <time>2018-05-06T09:17:34Z</time>
      </trkpt>
      <trkpt lat="42.38279" lon="0.23412">
        <ele>618</ele>
        <time>2018-05-06T09:17:43Z</time>
      </trkpt>
      <trkpt lat="42.38297" lon="0.23402">
        <ele>617.6</ele>
        <time>2018-05-06T09:17:53Z</time>
      </trkpt>
      <trkpt lat="42.38315" lon="0.23395">
        <ele>618</ele>
        <time>2018-05-06T09:18:01Z</time>
      </trkpt>
      <trkpt lat="42.38333" lon="0.23396">
        <ele>617.5</ele>
        <time>2018-05-06T09:18:27Z</time>
      </trkpt>
      <trkpt lat="42.38353" lon="0.23399">
        <ele>616.3</ele>
        <time>2018-05-06T09:18:37Z</time>
      </trkpt>
      <trkpt lat="42.38372" lon="0.23402">
        <ele>615.4</ele>
        <time>2018-05-06T09:18:44Z</time>
      </trkpt>
      <trkpt lat="42.38387" lon="0.23395">
        <ele>615</ele>
        <time>2018-05-06T09:18:50Z</time>
      </trkpt>
      <trkpt lat="42.38394" lon="0.23379">
        <ele>615.7</ele>
        <time>2018-05-06T09:18:56Z</time>
      </trkpt>
      <trkpt lat="42.38395" lon="0.2337">
        <ele>616.3</ele>
        <time>2018-05-06T09:19:00Z</time>
      </trkpt>
      <trkpt lat="42.38411" lon="0.23359">
        <ele>616.6</ele>
        <time>2018-05-06T09:19:20Z</time>
      </trkpt>
      <trkpt lat="42.38427" lon="0.23348">
        <ele>615.7</ele>
        <time>2018-05-06T09:19:38Z</time>
      </trkpt>
      <trkpt lat="42.38448" lon="0.23349">
        <ele>612.2</ele>
        <time>2018-05-06T09:19:45Z</time>
      </trkpt>
      <trkpt lat="42.38467" lon="0.23345">
        <ele>610.4</ele>
        <time>2018-05-06T09:19:50Z</time>
      </trkpt>
      <trkpt lat="42.38485" lon="0.23347">
        <ele>608.3</ele>
        <time>2018-05-06T09:20:12Z</time>
      </trkpt>
      <trkpt lat="42.38501" lon="0.23359">
        <ele>606.3</ele>
        <time>2018-05-06T09:20:25Z</time>
      </trkpt>
      <trkpt lat="42.38519" lon="0.23367">
        <ele>605.2</ele>
        <time>2018-05-06T09:20:32Z</time>
      </trkpt>
      <trkpt lat="42.38536" lon="0.23375">
        <ele>604.6</ele>
        <time>2018-05-06T09:20:39Z</time>
      </trkpt>
      <trkpt lat="42.38555" lon="0.2338">
        <ele>603.6</ele>
        <time>2018-05-06T09:20:46Z</time>
      </trkpt>
      <trkpt lat="42.38573" lon="0.23385">
        <ele>604</ele>
        <time>2018-05-06T09:20:56Z</time>
      </trkpt>
      <trkpt lat="42.3859" lon="0.23381">
        <ele>604.7</ele>
        <time>2018-05-06T09:21:06Z</time>
      </trkpt>
      <trkpt lat="42.38602" lon="0.23364">
        <ele>604</ele>
        <time>2018-05-06T09:21:17Z</time>
      </trkpt>
      <trkpt lat="42.38609" lon="0.23342">
        <ele>602.9</ele>
        <time>2018-05-06T09:21:27Z</time>
      </trkpt>
      <trkpt lat="42.38601" lon="0.23318">
        <ele>603.2</ele>
        <time>2018-05-06T09:21:37Z</time>
      </trkpt>
      <trkpt lat="42.38594" lon="0.23298">
        <ele>604.7</ele>
        <time>2018-05-06T09:21:45Z</time>
      </trkpt>
      <trkpt lat="42.38601" lon="0.23302">
        <ele>604.1</ele>
        <time>2018-05-06T09:23:12Z</time>
      </trkpt>
      <trkpt lat="42.3861" lon="0.23296">
        <ele>603.8</ele>
        <time>2018-05-06T09:24:59Z</time>
      </trkpt>
      <trkpt lat="42.38628" lon="0.23288">
        <ele>603.1</ele>
        <time>2018-05-06T09:25:12Z</time>
      </trkpt>
      <trkpt lat="42.38642" lon="0.23273">
        <ele>601.6</ele>
        <time>2018-05-06T09:25:21Z</time>
      </trkpt>
      <trkpt lat="42.38655" lon="0.23255">
        <ele>600.3</ele>
        <time>2018-05-06T09:25:29Z</time>
      </trkpt>
      <trkpt lat="42.38667" lon="0.23239">
        <ele>599.5</ele>
        <time>2018-05-06T09:25:41Z</time>
      </trkpt>
      <trkpt lat="42.3867" lon="0.23224">
        <ele>599.4</ele>
        <time>2018-05-06T09:25:46Z</time>
      </trkpt>
      <trkpt lat="42.38676" lon="0.232">
        <ele>598.1</ele>
        <time>2018-05-06T09:25:52Z</time>
      </trkpt>
      <trkpt lat="42.38686" lon="0.23175">
        <ele>598.8</ele>
        <time>2018-05-06T09:25:58Z</time>
      </trkpt>
      <trkpt lat="42.38698" lon="0.23154">
        <ele>600.5</ele>
        <time>2018-05-06T09:26:04Z</time>
      </trkpt>
      <trkpt lat="42.38714" lon="0.2314">
        <ele>602.6</ele>
        <time>2018-05-06T09:26:12Z</time>
      </trkpt>
      <trkpt lat="42.3873" lon="0.23126">
        <ele>604.3</ele>
        <time>2018-05-06T09:26:21Z</time>
      </trkpt>
      <trkpt lat="42.38748" lon="0.23118">
        <ele>604.6</ele>
        <time>2018-05-06T09:26:29Z</time>
      </trkpt>
      <trkpt lat="42.38766" lon="0.23125">
        <ele>601.7</ele>
        <time>2018-05-06T09:26:35Z</time>
      </trkpt>
      <trkpt lat="42.38783" lon="0.23134">
        <ele>599</ele>
        <time>2018-05-06T09:26:41Z</time>
      </trkpt>
      <trkpt lat="42.38803" lon="0.23139">
        <ele>596.6</ele>
        <time>2018-05-06T09:26:50Z</time>
      </trkpt>
      <trkpt lat="42.38817" lon="0.23136">
        <ele>595.3</ele>
        <time>2018-05-06T09:26:54Z</time>
      </trkpt>
      <trkpt lat="42.38835" lon="0.23129">
        <ele>594.4</ele>
        <time>2018-05-06T09:26:59Z</time>
      </trkpt>
      <trkpt lat="42.38853" lon="0.23117">
        <ele>594</ele>
        <time>2018-05-06T09:27:06Z</time>
      </trkpt>
      <trkpt lat="42.38868" lon="0.23099">
        <ele>593.6</ele>
        <time>2018-05-06T09:27:14Z</time>
      </trkpt>
      <trkpt lat="42.3888" lon="0.23078">
        <ele>594.1</ele>
        <time>2018-05-06T09:27:23Z</time>
      </trkpt>
      <trkpt lat="42.38894" lon="0.23061">
        <ele>594.9</ele>
        <time>2018-05-06T09:27:32Z</time>
      </trkpt>
      <trkpt lat="42.38911" lon="0.23054">
        <ele>593.5</ele>
        <time>2018-05-06T09:27:42Z</time>
      </trkpt>
      <trkpt lat="42.38915" lon="0.23054">
        <ele>593.2</ele>
        <time>2018-05-06T09:27:45Z</time>
      </trkpt>
      <trkpt lat="42.38921" lon="0.23061">
        <ele>592</ele>
        <time>2018-05-06T09:27:49Z</time>
      </trkpt>
      <trkpt lat="42.38934" lon="0.23079">
        <ele>589</ele>
        <time>2018-05-06T09:27:59Z</time>
      </trkpt>
      <trkpt lat="42.38947" lon="0.23096">
        <ele>587.8</ele>
        <time>2018-05-06T09:28:10Z</time>
      </trkpt>
      <trkpt lat="42.38967" lon="0.23097">
        <ele>587.4</ele>
        <time>2018-05-06T09:28:21Z</time>
      </trkpt>
      <trkpt lat="42.38984" lon="0.23083">
        <ele>588.6</ele>
        <time>2018-05-06T09:28:27Z</time>
      </trkpt>
      <trkpt lat="42.39" lon="0.23072">
        <ele>590</ele>
        <time>2018-05-06T09:28:37Z</time>
      </trkpt>
      <trkpt lat="42.39018" lon="0.23064">
        <ele>591.2</ele>
        <time>2018-05-06T09:28:49Z</time>
      </trkpt>
      <trkpt lat="42.39037" lon="0.23057">
        <ele>591.6</ele>
        <time>2018-05-06T09:28:58Z</time>
      </trkpt>
      <trkpt lat="42.39055" lon="0.23064">
        <ele>589.4</ele>
        <time>2018-05-06T09:29:06Z</time>
      </trkpt>
      <trkpt lat="42.39073" lon="0.23061">
        <ele>588.8</ele>
        <time>2018-05-06T09:29:13Z</time>
      </trkpt>
      <trkpt lat="42.39091" lon="0.23056">
        <ele>588.1</ele>
        <time>2018-05-06T09:29:22Z</time>
      </trkpt>
      <trkpt lat="42.39109" lon="0.23044">
        <ele>587.4</ele>
        <time>2018-05-06T09:29:30Z</time>
      </trkpt>
      <trkpt lat="42.39124" lon="0.23029">
        <ele>587.3</ele>
        <time>2018-05-06T09:29:36Z</time>
      </trkpt>
      <trkpt lat="42.39139" lon="0.23012">
        <ele>587.1</ele>
        <time>2018-05-06T09:29:43Z</time>
      </trkpt>
      <trkpt lat="42.39157" lon="0.22999">
        <ele>586.8</ele>
        <time>2018-05-06T09:29:51Z</time>
      </trkpt>
      <trkpt lat="42.39175" lon="0.22994">
        <ele>585.3</ele>
        <time>2018-05-06T09:29:59Z</time>
      </trkpt>
      <trkpt lat="42.39192" lon="0.22985">
        <ele>584.3</ele>
        <time>2018-05-06T09:30:06Z</time>
      </trkpt>
      <trkpt lat="42.39201" lon="0.22975">
        <ele>584.2</ele>
        <time>2018-05-06T09:30:12Z</time>
      </trkpt>
      <trkpt lat="42.39201" lon="0.22964">
        <ele>585.1</ele>
        <time>2018-05-06T09:30:16Z</time>
      </trkpt>
      <trkpt lat="42.39198" lon="0.22939">
        <ele>587.4</ele>
        <time>2018-05-06T09:30:24Z</time>
      </trkpt>
      <trkpt lat="42.39208" lon="0.22919">
        <ele>587</ele>
        <time>2018-05-06T09:31:17Z</time>
      </trkpt>
      <trkpt lat="42.39225" lon="0.22907">
        <ele>584.2</ele>
        <time>2018-05-06T09:31:27Z</time>
      </trkpt>
      <trkpt lat="42.39242" lon="0.22898">
        <ele>581.9</ele>
        <time>2018-05-06T09:31:37Z</time>
      </trkpt>
      <trkpt lat="42.39261" lon="0.22896">
        <ele>578.8</ele>
        <time>2018-05-06T09:31:45Z</time>
      </trkpt>
      <trkpt lat="42.3928" lon="0.22897">
        <ele>576.7</ele>
        <time>2018-05-06T09:31:51Z</time>
      </trkpt>
      <trkpt lat="42.393" lon="0.22903">
        <ele>575.5</ele>
        <time>2018-05-06T09:31:58Z</time>
      </trkpt>
      <trkpt lat="42.39318" lon="0.22904">
        <ele>574.8</ele>
        <time>2018-05-06T09:32:03Z</time>
      </trkpt>
      <trkpt lat="42.39336" lon="0.22896">
        <ele>574.5</ele>
        <time>2018-05-06T09:32:08Z</time>
      </trkpt>
      <trkpt lat="42.3934" lon="0.22893">
        <ele>574.5</ele>
        <time>2018-05-06T09:32:09Z</time>
      </trkpt>
      <trkpt lat="42.39349" lon="0.22882">
        <ele>574.4</ele>
        <time>2018-05-06T09:32:13Z</time>
      </trkpt>
      <trkpt lat="42.39354" lon="0.22857">
        <ele>574.1</ele>
        <time>2018-05-06T09:32:23Z</time>
      </trkpt>
      <trkpt lat="42.39356" lon="0.22832">
        <ele>574.1</ele>
        <time>2018-05-06T09:32:30Z</time>
      </trkpt>
      <trkpt lat="42.39359" lon="0.22807">
        <ele>574.4</ele>
        <time>2018-05-06T09:32:38Z</time>
      </trkpt>
      <trkpt lat="42.39366" lon="0.22784">
        <ele>574.4</ele>
        <time>2018-05-06T09:32:50Z</time>
      </trkpt>
      <trkpt lat="42.39374" lon="0.22769">
        <ele>574</ele>
        <time>2018-05-06T09:32:57Z</time>
      </trkpt>
      <trkpt lat="42.39393" lon="0.22758">
        <ele>572.4</ele>
        <time>2018-05-06T09:33:06Z</time>
      </trkpt>
      <trkpt lat="42.39412" lon="0.22749">
        <ele>571.1</ele>
        <time>2018-05-06T09:33:14Z</time>
      </trkpt>
      <trkpt lat="42.39415" lon="0.22747">
        <ele>570.9</ele>
        <time>2018-05-06T09:33:16Z</time>
      </trkpt>
      <trkpt lat="42.39424" lon="0.22735">
        <ele>570.6</ele>
        <time>2018-05-06T09:33:23Z</time>
      </trkpt>
      <trkpt lat="42.3944" lon="0.22725">
        <ele>569.6</ele>
        <time>2018-05-06T09:33:33Z</time>
      </trkpt>
      <trkpt lat="42.39457" lon="0.22713">
        <ele>568.8</ele>
        <time>2018-05-06T09:33:40Z</time>
      </trkpt>
      <trkpt lat="42.39465" lon="0.22706">
        <ele>568.5</ele>
        <time>2018-05-06T09:33:44Z</time>
      </trkpt>
      <trkpt lat="42.39466" lon="0.22695">
        <ele>568.3</ele>
        <time>2018-05-06T09:33:48Z</time>
      </trkpt>
      <trkpt lat="42.3947" lon="0.22695">
        <ele>568.2</ele>
        <time>2018-05-06T09:34:30Z</time>
      </trkpt>
      <trkpt lat="42.39468" lon="0.22697">
        <ele>568.3</ele>
        <time>2018-05-06T09:34:31Z</time>
      </trkpt>
      <trkpt lat="42.39464" lon="0.2271">
        <ele>568.5</ele>
        <time>2018-05-06T09:34:36Z</time>
      </trkpt>
      <trkpt lat="42.39448" lon="0.22722">
        <ele>569.2</ele>
        <time>2018-05-06T09:34:43Z</time>
      </trkpt>
      <trkpt lat="42.39431" lon="0.22731">
        <ele>570.1</ele>
        <time>2018-05-06T09:34:50Z</time>
      </trkpt>
      <trkpt lat="42.39427" lon="0.2273">
        <ele>570.4</ele>
        <time>2018-05-06T09:34:52Z</time>
      </trkpt>
      <trkpt lat="42.39428" lon="0.22723">
        <ele>570.3</ele>
        <time>2018-05-06T09:34:58Z</time>
      </trkpt>
      <trkpt lat="42.39434" lon="0.22698">
        <ele>569.9</ele>
        <time>2018-05-06T09:35:10Z</time>
      </trkpt>
      <trkpt lat="42.39441" lon="0.22678">
        <ele>569.4</ele>
        <time>2018-05-06T09:35:19Z</time>
      </trkpt>
      <trkpt lat="42.39434" lon="0.22678">
        <ele>569.4</ele>
        <time>2018-05-06T09:35:25Z</time>
      </trkpt>
      <trkpt lat="42.39431" lon="0.2268">
        <ele>569.4</ele>
        <time>2018-05-06T09:35:28Z</time>
      </trkpt>
      <trkpt lat="42.39415" lon="0.22692">
        <ele>569.6</ele>
        <time>2018-05-06T09:35:40Z</time>
      </trkpt>
      <trkpt lat="42.39398" lon="0.22699">
        <ele>570.8</ele>
        <time>2018-05-06T09:35:49Z</time>
      </trkpt>
      <trkpt lat="42.39381" lon="0.22709">
        <ele>571.8</ele>
        <time>2018-05-06T09:35:59Z</time>
      </trkpt>
      <trkpt lat="42.39364" lon="0.22719">
        <ele>573.6</ele>
        <time>2018-05-06T09:36:08Z</time>
      </trkpt>
      <trkpt lat="42.39348" lon="0.22733">
        <ele>576.8</ele>
        <time>2018-05-06T09:36:18Z</time>
      </trkpt>
      <trkpt lat="42.39331" lon="0.22748">
        <ele>580.4</ele>
        <time>2018-05-06T09:36:26Z</time>
      </trkpt>
      <trkpt lat="42.39313" lon="0.2276">
        <ele>583.2</ele>
        <time>2018-05-06T09:36:32Z</time>
      </trkpt>
      <trkpt lat="42.39294" lon="0.22759">
        <ele>584.1</ele>
        <time>2018-05-06T09:36:38Z</time>
      </trkpt>
      <trkpt lat="42.39275" lon="0.22757">
        <ele>584.2</ele>
        <time>2018-05-06T09:36:46Z</time>
      </trkpt>
      <trkpt lat="42.39261" lon="0.22772">
        <ele>584.3</ele>
        <time>2018-05-06T09:36:55Z</time>
      </trkpt>
      <trkpt lat="42.39246" lon="0.22781">
        <ele>584.7</ele>
        <time>2018-05-06T09:37:04Z</time>
      </trkpt>
      <trkpt lat="42.39239" lon="0.22778">
        <ele>585.7</ele>
        <time>2018-05-06T09:37:10Z</time>
      </trkpt>
      <trkpt lat="42.39223" lon="0.22766">
        <ele>588.5</ele>
        <time>2018-05-06T09:37:22Z</time>
      </trkpt>
      <trkpt lat="42.39206" lon="0.22754">
        <ele>590.9</ele>
        <time>2018-05-06T09:37:35Z</time>
      </trkpt>
      <trkpt lat="42.39198" lon="0.22747">
        <ele>592.3</ele>
        <time>2018-05-06T09:37:42Z</time>
      </trkpt>
      <trkpt lat="42.3918" lon="0.22751">
        <ele>595.1</ele>
        <time>2018-05-06T09:38:30Z</time>
      </trkpt>
      <trkpt lat="42.3916" lon="0.22744">
        <ele>598.6</ele>
        <time>2018-05-06T09:38:51Z</time>
      </trkpt>
      <trkpt lat="42.39142" lon="0.22745">
        <ele>602.4</ele>
        <time>2018-05-06T09:39:03Z</time>
      </trkpt>
      <trkpt lat="42.39126" lon="0.22758">
        <ele>605.6</ele>
        <time>2018-05-06T09:39:16Z</time>
      </trkpt>
      <trkpt lat="42.39112" lon="0.22773">
        <ele>609.5</ele>
        <time>2018-05-06T09:39:27Z</time>
      </trkpt>
      <trkpt lat="42.39109" lon="0.22777">
        <ele>610.2</ele>
        <time>2018-05-06T09:39:36Z</time>
      </trkpt>
      <trkpt lat="42.39099" lon="0.22797">
        <ele>614.3</ele>
        <time>2018-05-06T09:39:48Z</time>
      </trkpt>
      <trkpt lat="42.39087" lon="0.22815">
        <ele>616.5</ele>
        <time>2018-05-06T09:40:06Z</time>
      </trkpt>
      <trkpt lat="42.39072" lon="0.2283">
        <ele>618.4</ele>
        <time>2018-05-06T09:42:26Z</time>
      </trkpt>
      <trkpt lat="42.39055" lon="0.22838">
        <ele>620.7</ele>
        <time>2018-05-06T09:42:36Z</time>
      </trkpt>
      <trkpt lat="42.39037" lon="0.22839">
        <ele>622.8</ele>
        <time>2018-05-06T09:42:47Z</time>
      </trkpt>
      <trkpt lat="42.3902" lon="0.22829">
        <ele>624.6</ele>
        <time>2018-05-06T09:42:59Z</time>
      </trkpt>
      <trkpt lat="42.39011" lon="0.22827">
        <ele>625.5</ele>
        <time>2018-05-06T09:43:05Z</time>
      </trkpt>
      <trkpt lat="42.39002" lon="0.2282">
        <ele>627.2</ele>
        <time>2018-05-06T09:43:12Z</time>
      </trkpt>
      <trkpt lat="42.38997" lon="0.22816">
        <ele>628.1</ele>
        <time>2018-05-06T09:43:16Z</time>
      </trkpt>
      <trkpt lat="42.38981" lon="0.22802">
        <ele>631.3</ele>
        <time>2018-05-06T09:43:29Z</time>
      </trkpt>
      <trkpt lat="42.38964" lon="0.22795">
        <ele>633.4</ele>
        <time>2018-05-06T09:43:41Z</time>
      </trkpt>
      <trkpt lat="42.38946" lon="0.22788">
        <ele>635.4</ele>
        <time>2018-05-06T09:43:53Z</time>
      </trkpt>
      <trkpt lat="42.38928" lon="0.22785">
        <ele>638.3</ele>
        <time>2018-05-06T09:44:05Z</time>
      </trkpt>
      <trkpt lat="42.3891" lon="0.22784">
        <ele>641.2</ele>
        <time>2018-05-06T09:44:17Z</time>
      </trkpt>
      <trkpt lat="42.38892" lon="0.22786">
        <ele>643.1</ele>
        <time>2018-05-06T09:44:31Z</time>
      </trkpt>
      <trkpt lat="42.38873" lon="0.22786">
        <ele>645.2</ele>
        <time>2018-05-06T09:44:44Z</time>
      </trkpt>
      <trkpt lat="42.38854" lon="0.22782">
        <ele>647.5</ele>
        <time>2018-05-06T09:44:58Z</time>
      </trkpt>
      <trkpt lat="42.38852" lon="0.22783">
        <ele>647.8</ele>
        <time>2018-05-06T09:45:00Z</time>
      </trkpt>
      <trkpt lat="42.38857" lon="0.22801">
        <ele>650.1</ele>
        <time>2018-05-06T09:45:13Z</time>
      </trkpt>
      <trkpt lat="42.38862" lon="0.22822">
        <ele>652.9</ele>
        <time>2018-05-06T09:45:28Z</time>
      </trkpt>
      <trkpt lat="42.38846" lon="0.22833">
        <ele>656.6</ele>
        <time>2018-05-06T09:45:38Z</time>
      </trkpt>
      <trkpt lat="42.38827" lon="0.2284">
        <ele>659.4</ele>
        <time>2018-05-06T09:45:47Z</time>
      </trkpt>
      <trkpt lat="42.3881" lon="0.22855">
        <ele>661.8</ele>
        <time>2018-05-06T09:45:54Z</time>
      </trkpt>
      <trkpt lat="42.38794" lon="0.22867">
        <ele>662.4</ele>
        <time>2018-05-06T09:46:00Z</time>
      </trkpt>
      <trkpt lat="42.38775" lon="0.22878">
        <ele>663</ele>
        <time>2018-05-06T09:46:06Z</time>
      </trkpt>
      <trkpt lat="42.38757" lon="0.22893">
        <ele>664.3</ele>
        <time>2018-05-06T09:46:12Z</time>
      </trkpt>
      <trkpt lat="42.3874" lon="0.22904">
        <ele>664.5</ele>
        <time>2018-05-06T09:46:17Z</time>
      </trkpt>
      <trkpt lat="42.38719" lon="0.22912">
        <ele>665.2</ele>
        <time>2018-05-06T09:46:23Z</time>
      </trkpt>
      <trkpt lat="42.38704" lon="0.22899">
        <ele>666.5</ele>
        <time>2018-05-06T09:46:32Z</time>
      </trkpt>
      <trkpt lat="42.38693" lon="0.22877">
        <ele>666.6</ele>
        <time>2018-05-06T09:46:42Z</time>
      </trkpt>
      <trkpt lat="42.38685" lon="0.22854">
        <ele>666.8</ele>
        <time>2018-05-06T09:46:56Z</time>
      </trkpt>
      <trkpt lat="42.38679" lon="0.2283">
        <ele>667.5</ele>
        <time>2018-05-06T09:47:08Z</time>
      </trkpt>
      <trkpt lat="42.38671" lon="0.22808">
        <ele>669.6</ele>
        <time>2018-05-06T09:47:22Z</time>
      </trkpt>
      <trkpt lat="42.38658" lon="0.22789">
        <ele>672.6</ele>
        <time>2018-05-06T09:47:35Z</time>
      </trkpt>
      <trkpt lat="42.38644" lon="0.22773">
        <ele>675</ele>
        <time>2018-05-06T09:47:47Z</time>
      </trkpt>
      <trkpt lat="42.38629" lon="0.22756">
        <ele>678.1</ele>
        <time>2018-05-06T09:48:00Z</time>
      </trkpt>
      <trkpt lat="42.38618" lon="0.22735">
        <ele>681</ele>
        <time>2018-05-06T09:48:10Z</time>
      </trkpt>
      <trkpt lat="42.38612" lon="0.2271">
        <ele>683.4</ele>
        <time>2018-05-06T09:48:20Z</time>
      </trkpt>
      <trkpt lat="42.38608" lon="0.22685">
        <ele>685.8</ele>
        <time>2018-05-06T09:48:29Z</time>
      </trkpt>
      <trkpt lat="42.38606" lon="0.22659">
        <ele>688.2</ele>
        <time>2018-05-06T09:48:40Z</time>
      </trkpt>
      <trkpt lat="42.38602" lon="0.22634">
        <ele>690.9</ele>
        <time>2018-05-06T09:48:51Z</time>
      </trkpt>
      <trkpt lat="42.38596" lon="0.2261">
        <ele>691.6</ele>
        <time>2018-05-06T09:49:01Z</time>
      </trkpt>
      <trkpt lat="42.3859" lon="0.22587">
        <ele>692.2</ele>
        <time>2018-05-06T09:49:11Z</time>
      </trkpt>
      <trkpt lat="42.38582" lon="0.22562">
        <ele>695.2</ele>
        <time>2018-05-06T09:49:18Z</time>
      </trkpt>
      <trkpt lat="42.3857" lon="0.22551">
        <ele>697.3</ele>
        <time>2018-05-06T09:49:21Z</time>
      </trkpt>
      <trkpt lat="42.38559" lon="0.22531">
        <ele>699.8</ele>
        <time>2018-05-06T09:49:26Z</time>
      </trkpt>
      <trkpt lat="42.3855" lon="0.2251">
        <ele>701.5</ele>
        <time>2018-05-06T09:49:34Z</time>
      </trkpt>
      <trkpt lat="42.38545" lon="0.22486">
        <ele>701.8</ele>
        <time>2018-05-06T09:49:44Z</time>
      </trkpt>
      <trkpt lat="42.38553" lon="0.22466">
        <ele>701.8</ele>
        <time>2018-05-06T09:49:56Z</time>
      </trkpt>
      <trkpt lat="42.38553" lon="0.22448">
        <ele>701.9</ele>
        <time>2018-05-06T09:50:06Z</time>
      </trkpt>
      <trkpt lat="42.38536" lon="0.22439">
        <ele>702.3</ele>
        <time>2018-05-06T09:50:21Z</time>
      </trkpt>
      <trkpt lat="42.38518" lon="0.22431">
        <ele>704.2</ele>
        <time>2018-05-06T09:50:38Z</time>
      </trkpt>
      <trkpt lat="42.38499" lon="0.22425">
        <ele>706.5</ele>
        <time>2018-05-06T09:50:55Z</time>
      </trkpt>
      <trkpt lat="42.3848" lon="0.22421">
        <ele>710.3</ele>
        <time>2018-05-06T09:51:09Z</time>
      </trkpt>
      <trkpt lat="42.38459" lon="0.22425">
        <ele>713.2</ele>
        <time>2018-05-06T09:51:25Z</time>
      </trkpt>
      <trkpt lat="42.38436" lon="0.22434">
        <ele>718.4</ele>
        <time>2018-05-06T09:51:43Z</time>
      </trkpt>
      <trkpt lat="42.38416" lon="0.22429">
        <ele>721.7</ele>
        <time>2018-05-06T09:51:56Z</time>
      </trkpt>
      <trkpt lat="42.38399" lon="0.22419">
        <ele>725.4</ele>
        <time>2018-05-06T09:52:08Z</time>
      </trkpt>
      <trkpt lat="42.38383" lon="0.22408">
        <ele>727.6</ele>
        <time>2018-05-06T09:52:19Z</time>
      </trkpt>
      <trkpt lat="42.38375" lon="0.2239">
        <ele>729.3</ele>
        <time>2018-05-06T09:52:30Z</time>
      </trkpt>
      <trkpt lat="42.38375" lon="0.22385">
        <ele>729.5</ele>
        <time>2018-05-06T09:52:32Z</time>
      </trkpt>
      <trkpt lat="42.38385" lon="0.22362">
        <ele>732.4</ele>
        <time>2018-05-06T09:52:49Z</time>
      </trkpt>
      <trkpt lat="42.38401" lon="0.22348">
        <ele>733.5</ele>
        <time>2018-05-06T09:53:02Z</time>
      </trkpt>
      <trkpt lat="42.38419" lon="0.22345">
        <ele>735.2</ele>
        <time>2018-05-06T09:53:12Z</time>
      </trkpt>
      <trkpt lat="42.38438" lon="0.2234">
        <ele>738.2</ele>
        <time>2018-05-06T09:53:23Z</time>
      </trkpt>
      <trkpt lat="42.38452" lon="0.22323">
        <ele>741.5</ele>
        <time>2018-05-06T09:53:35Z</time>
      </trkpt>
      <trkpt lat="42.38468" lon="0.2231">
        <ele>744.4</ele>
        <time>2018-05-06T09:53:43Z</time>
      </trkpt>
      <trkpt lat="42.38477" lon="0.22291">
        <ele>746.3</ele>
        <time>2018-05-06T09:53:52Z</time>
      </trkpt>
      <trkpt lat="42.38472" lon="0.22286">
        <ele>746.9</ele>
        <time>2018-05-06T09:53:56Z</time>
      </trkpt>
      <trkpt lat="42.38453" lon="0.22286">
        <ele>748</ele>
        <time>2018-05-06T09:54:08Z</time>
      </trkpt>
      <trkpt lat="42.38434" lon="0.22291">
        <ele>749.7</ele>
        <time>2018-05-06T09:54:18Z</time>
      </trkpt>
      <trkpt lat="42.38416" lon="0.22292">
        <ele>750.3</ele>
        <time>2018-05-06T09:54:27Z</time>
      </trkpt>
      <trkpt lat="42.38395" lon="0.22296">
        <ele>750.9</ele>
        <time>2018-05-06T09:54:35Z</time>
      </trkpt>
      <trkpt lat="42.38377" lon="0.22304">
        <ele>753.1</ele>
        <time>2018-05-06T09:54:42Z</time>
      </trkpt>
      <trkpt lat="42.38361" lon="0.22313">
        <ele>755.7</ele>
        <time>2018-05-06T09:55:08Z</time>
      </trkpt>
      <trkpt lat="42.38341" lon="0.2232">
        <ele>757</ele>
        <time>2018-05-06T09:55:16Z</time>
      </trkpt>
      <trkpt lat="42.38324" lon="0.22326">
        <ele>758.3</ele>
        <time>2018-05-06T09:55:21Z</time>
      </trkpt>
      <trkpt lat="42.38303" lon="0.22335">
        <ele>758.5</ele>
        <time>2018-05-06T09:55:26Z</time>
      </trkpt>
      <trkpt lat="42.38288" lon="0.22344">
        <ele>758.5</ele>
        <time>2018-05-06T09:55:29Z</time>
      </trkpt>
      <trkpt lat="42.38269" lon="0.22343">
        <ele>758.5</ele>
        <time>2018-05-06T09:55:33Z</time>
      </trkpt>
      <trkpt lat="42.38254" lon="0.22322">
        <ele>758.5</ele>
        <time>2018-05-06T09:55:38Z</time>
      </trkpt>
      <trkpt lat="42.38244" lon="0.22306">
        <ele>758.5</ele>
        <time>2018-05-06T09:55:43Z</time>
      </trkpt>
      <trkpt lat="42.3824" lon="0.22309">
        <ele>758.5</ele>
        <time>2018-05-06T09:55:46Z</time>
      </trkpt>
      <trkpt lat="42.38233" lon="0.22332">
        <ele>758.5</ele>
        <time>2018-05-06T09:55:54Z</time>
      </trkpt>
      <trkpt lat="42.38227" lon="0.22358">
        <ele>758.5</ele>
        <time>2018-05-06T09:56:00Z</time>
      </trkpt>
      <trkpt lat="42.38214" lon="0.22377">
        <ele>758.5</ele>
        <time>2018-05-06T09:56:06Z</time>
      </trkpt>
      <trkpt lat="42.382" lon="0.22396">
        <ele>758.5</ele>
        <time>2018-05-06T09:56:13Z</time>
      </trkpt>
      <trkpt lat="42.3819" lon="0.22417">
        <ele>758.6</ele>
        <time>2018-05-06T09:56:22Z</time>
      </trkpt>
      <trkpt lat="42.38171" lon="0.22436">
        <ele>759.7</ele>
        <time>2018-05-06T09:56:28Z</time>
      </trkpt>
      <trkpt lat="42.38152" lon="0.22443">
        <ele>760.8</ele>
        <time>2018-05-06T09:56:34Z</time>
      </trkpt>
      <trkpt lat="42.3813" lon="0.22448">
        <ele>761.9</ele>
        <time>2018-05-06T09:56:41Z</time>
      </trkpt>
      <trkpt lat="42.38113" lon="0.22461">
        <ele>763.1</ele>
        <time>2018-05-06T09:56:48Z</time>
      </trkpt>
      <trkpt lat="42.38098" lon="0.22479">
        <ele>764.5</ele>
        <time>2018-05-06T09:56:53Z</time>
      </trkpt>
      <trkpt lat="42.38079" lon="0.22482">
        <ele>765.1</ele>
        <time>2018-05-06T09:56:58Z</time>
      </trkpt>
      <trkpt lat="42.38061" lon="0.22485">
        <ele>765.6</ele>
        <time>2018-05-06T09:57:03Z</time>
      </trkpt>
      <trkpt lat="42.38048" lon="0.22504">
        <ele>767.1</ele>
        <time>2018-05-06T09:57:09Z</time>
      </trkpt>
      <trkpt lat="42.38035" lon="0.22524">
        <ele>768.8</ele>
        <time>2018-05-06T09:57:15Z</time>
      </trkpt>
      <trkpt lat="42.38018" lon="0.22537">
        <ele>769.4</ele>
        <time>2018-05-06T09:57:22Z</time>
      </trkpt>
      <trkpt lat="42.38001" lon="0.22545">
        <ele>769.6</ele>
        <time>2018-05-06T09:57:30Z</time>
      </trkpt>
      <trkpt lat="42.37985" lon="0.22555">
        <ele>769.3</ele>
        <time>2018-05-06T09:57:37Z</time>
      </trkpt>
      <trkpt lat="42.37967" lon="0.22551">
        <ele>769</ele>
        <time>2018-05-06T09:57:45Z</time>
      </trkpt>
      <trkpt lat="42.37951" lon="0.2254">
        <ele>769.1</ele>
        <time>2018-05-06T09:57:53Z</time>
      </trkpt>
      <trkpt lat="42.37935" lon="0.22529">
        <ele>770.3</ele>
        <time>2018-05-06T09:58:02Z</time>
      </trkpt>
      <trkpt lat="42.37916" lon="0.22522">
        <ele>773</ele>
        <time>2018-05-06T09:58:14Z</time>
      </trkpt>
      <trkpt lat="42.37914" lon="0.22521">
        <ele>773.8</ele>
        <time>2018-05-06T09:58:16Z</time>
      </trkpt>
      <trkpt lat="42.37909" lon="0.22517">
        <ele>775.3</ele>
        <time>2018-05-06T09:58:20Z</time>
      </trkpt>
      <trkpt lat="42.37895" lon="0.22499">
        <ele>778.6</ele>
        <time>2018-05-06T09:58:32Z</time>
      </trkpt>
      <trkpt lat="42.37877" lon="0.22493">
        <ele>779.5</ele>
        <time>2018-05-06T09:58:42Z</time>
      </trkpt>
      <trkpt lat="42.37857" lon="0.22488">
        <ele>780.8</ele>
        <time>2018-05-06T09:58:53Z</time>
      </trkpt>
      <trkpt lat="42.37839" lon="0.22479">
        <ele>781.4</ele>
        <time>2018-05-06T09:59:01Z</time>
      </trkpt>
      <trkpt lat="42.37826" lon="0.22462">
        <ele>784.5</ele>
        <time>2018-05-06T09:59:11Z</time>
      </trkpt>
      <trkpt lat="42.37821" lon="0.2245">
        <ele>787.1</ele>
        <time>2018-05-06T09:59:18Z</time>
      </trkpt>
      <trkpt lat="42.37828" lon="0.22428">
        <ele>791</ele>
        <time>2018-05-06T09:59:31Z</time>
      </trkpt>
      <trkpt lat="42.37847" lon="0.22423">
        <ele>793.1</ele>
        <time>2018-05-06T09:59:44Z</time>
      </trkpt>
      <trkpt lat="42.3785" lon="0.22419">
        <ele>795.2</ele>
        <time>2018-05-06T09:59:49Z</time>
      </trkpt>
      <trkpt lat="42.37853" lon="0.22393">
        <ele>798.7</ele>
        <time>2018-05-06T10:00:06Z</time>
      </trkpt>
      <trkpt lat="42.37852" lon="0.22388">
        <ele>800.5</ele>
        <time>2018-05-06T10:00:10Z</time>
      </trkpt>
      <trkpt lat="42.37842" lon="0.22401">
        <ele>798.4</ele>
        <time>2018-05-06T10:00:16Z</time>
      </trkpt>
      <trkpt lat="42.37826" lon="0.22404">
        <ele>797</ele>
        <time>2018-05-06T10:00:32Z</time>
      </trkpt>
      <trkpt lat="42.37828" lon="0.2238">
        <ele>800.2</ele>
        <time>2018-05-06T10:00:38Z</time>
      </trkpt>
      <trkpt lat="42.37819" lon="0.22366">
        <ele>802.5</ele>
        <time>2018-05-06T10:00:56Z</time>
      </trkpt>
      <trkpt lat="42.378" lon="0.22377">
        <ele>800</ele>
        <time>2018-05-06T10:01:06Z</time>
      </trkpt>
      <trkpt lat="42.37785" lon="0.22392">
        <ele>796.5</ele>
        <time>2018-05-06T10:01:12Z</time>
      </trkpt>
      <trkpt lat="42.37775" lon="0.22371">
        <ele>797.9</ele>
        <time>2018-05-06T10:01:17Z</time>
      </trkpt>
      <trkpt lat="42.37767" lon="0.22347">
        <ele>800.6</ele>
        <time>2018-05-06T10:01:21Z</time>
      </trkpt>
      <trkpt lat="42.37762" lon="0.22323">
        <ele>804.4</ele>
        <time>2018-05-06T10:01:30Z</time>
      </trkpt>
      <trkpt lat="42.37751" lon="0.22303">
        <ele>808.8</ele>
        <time>2018-05-06T10:01:40Z</time>
      </trkpt>
      <trkpt lat="42.37742" lon="0.22282">
        <ele>813.3</ele>
        <time>2018-05-06T10:01:48Z</time>
      </trkpt>
      <trkpt lat="42.37733" lon="0.22272">
        <ele>817</ele>
        <time>2018-05-06T10:01:53Z</time>
      </trkpt>
      <trkpt lat="42.37713" lon="0.22271">
        <ele>815.9</ele>
        <time>2018-05-06T10:02:00Z</time>
      </trkpt>
      <trkpt lat="42.37694" lon="0.2227">
        <ele>814.8</ele>
        <time>2018-05-06T10:02:06Z</time>
      </trkpt>
      <trkpt lat="42.37682" lon="0.2228">
        <ele>812.2</ele>
        <time>2018-05-06T10:02:11Z</time>
      </trkpt>
      <trkpt lat="42.37672" lon="0.22294">
        <ele>805.9</ele>
        <time>2018-05-06T10:02:15Z</time>
      </trkpt>
      <trkpt lat="42.37652" lon="0.22293">
        <ele>801.9</ele>
        <time>2018-05-06T10:02:19Z</time>
      </trkpt>
      <trkpt lat="42.37634" lon="0.2229">
        <ele>799.7</ele>
        <time>2018-05-06T10:02:22Z</time>
      </trkpt>
      <trkpt lat="42.37628" lon="0.22288">
        <ele>798.9</ele>
        <time>2018-05-06T10:02:23Z</time>
      </trkpt>
      <trkpt lat="42.3761" lon="0.22282">
        <ele>796.5</ele>
        <time>2018-05-06T10:02:26Z</time>
      </trkpt>
      <trkpt lat="42.37605" lon="0.22279">
        <ele>796.2</ele>
        <time>2018-05-06T10:02:27Z</time>
      </trkpt>
      <trkpt lat="42.37593" lon="0.22272">
        <ele>793.9</ele>
        <time>2018-05-06T10:02:29Z</time>
      </trkpt>
      <trkpt lat="42.37575" lon="0.2226">
        <ele>792.4</ele>
        <time>2018-05-06T10:02:33Z</time>
      </trkpt>
      <trkpt lat="42.37575" lon="0.22244">
        <ele>795.6</ele>
        <time>2018-05-06T10:02:37Z</time>
      </trkpt>
      <trkpt lat="42.3758" lon="0.22226">
        <ele>802.9</ele>
        <time>2018-05-06T10:02:42Z</time>
      </trkpt>
      <trkpt lat="42.37576" lon="0.22209">
        <ele>808.6</ele>
        <time>2018-05-06T10:02:47Z</time>
      </trkpt>
      <trkpt lat="42.37569" lon="0.22188">
        <ele>812.2</ele>
        <time>2018-05-06T10:02:55Z</time>
      </trkpt>
      <trkpt lat="42.37549" lon="0.22187">
        <ele>808.8</ele>
        <time>2018-05-06T10:03:06Z</time>
      </trkpt>
      <trkpt lat="42.37535" lon="0.22172">
        <ele>809</ele>
        <time>2018-05-06T10:03:17Z</time>
      </trkpt>
      <trkpt lat="42.37521" lon="0.22155">
        <ele>809.8</ele>
        <time>2018-05-06T10:03:29Z</time>
      </trkpt>
      <trkpt lat="42.37503" lon="0.22146">
        <ele>808.4</ele>
        <time>2018-05-06T10:03:42Z</time>
      </trkpt>
      <trkpt lat="42.37485" lon="0.22139">
        <ele>806.5</ele>
        <time>2018-05-06T10:03:55Z</time>
      </trkpt>
      <trkpt lat="42.3747" lon="0.22127">
        <ele>803.5</ele>
        <time>2018-05-06T10:04:08Z</time>
      </trkpt>
      <trkpt lat="42.37464" lon="0.22105">
        <ele>806.1</ele>
        <time>2018-05-06T10:04:19Z</time>
      </trkpt>
      <trkpt lat="42.37465" lon="0.2208">
        <ele>810.2</ele>
        <time>2018-05-06T10:04:29Z</time>
      </trkpt>
      <trkpt lat="42.37457" lon="0.22061">
        <ele>812.5</ele>
        <time>2018-05-06T10:04:37Z</time>
      </trkpt>
      <trkpt lat="42.37439" lon="0.22057">
        <ele>811.9</ele>
        <time>2018-05-06T10:05:14Z</time>
      </trkpt>
      <trkpt lat="42.37434" lon="0.22058">
        <ele>811.4</ele>
        <time>2018-05-06T10:05:16Z</time>
      </trkpt>
      <trkpt lat="42.37446" lon="0.22065">
        <ele>812</ele>
        <time>2018-05-06T10:05:31Z</time>
      </trkpt>
      <trkpt lat="42.37448" lon="0.22067">
        <ele>811.8</ele>
        <time>2018-05-06T10:05:33Z</time>
      </trkpt>
      <trkpt lat="42.37444" lon="0.22085">
        <ele>807.8</ele>
        <time>2018-05-06T10:06:16Z</time>
      </trkpt>
      <trkpt lat="42.37431" lon="0.22098">
        <ele>802.2</ele>
        <time>2018-05-06T10:06:44Z</time>
      </trkpt>
      <trkpt lat="42.37414" lon="0.22112">
        <ele>795.8</ele>
        <time>2018-05-06T10:06:58Z</time>
      </trkpt>
      <trkpt lat="42.37409" lon="0.22114">
        <ele>794.7</ele>
        <time>2018-05-06T10:07:00Z</time>
      </trkpt>
      <trkpt lat="42.37402" lon="0.22132">
        <ele>790.3</ele>
        <time>2018-05-06T10:07:06Z</time>
      </trkpt>
      <trkpt lat="42.37397" lon="0.2214">
        <ele>787.7</ele>
        <time>2018-05-06T10:07:09Z</time>
      </trkpt>
      <trkpt lat="42.37378" lon="0.2214">
        <ele>784.2</ele>
        <time>2018-05-06T10:07:15Z</time>
      </trkpt>
      <trkpt lat="42.37361" lon="0.22147">
        <ele>781</ele>
        <time>2018-05-06T10:07:27Z</time>
      </trkpt>
      <trkpt lat="42.37353" lon="0.22156">
        <ele>778.3</ele>
        <time>2018-05-06T10:07:31Z</time>
      </trkpt>
      <trkpt lat="42.37347" lon="0.22164">
        <ele>776.1</ele>
        <time>2018-05-06T10:07:36Z</time>
      </trkpt>
      <trkpt lat="42.37336" lon="0.22185">
        <ele>771.7</ele>
        <time>2018-05-06T10:07:44Z</time>
      </trkpt>
      <trkpt lat="42.37323" lon="0.22204">
        <ele>767.6</ele>
        <time>2018-05-06T10:07:52Z</time>
      </trkpt>
      <trkpt lat="42.3731" lon="0.22221">
        <ele>764.1</ele>
        <time>2018-05-06T10:09:21Z</time>
      </trkpt>
      <trkpt lat="42.373" lon="0.22241">
        <ele>761.6</ele>
        <time>2018-05-06T10:09:26Z</time>
      </trkpt>
      <trkpt lat="42.37295" lon="0.22266">
        <ele>759.1</ele>
        <time>2018-05-06T10:09:29Z</time>
      </trkpt>
      <trkpt lat="42.37293" lon="0.22277">
        <ele>758.4</ele>
        <time>2018-05-06T10:09:30Z</time>
      </trkpt>
      <trkpt lat="42.37289" lon="0.22307">
        <ele>755.9</ele>
        <time>2018-05-06T10:09:33Z</time>
      </trkpt>
      <trkpt lat="42.37282" lon="0.22338">
        <ele>754.7</ele>
        <time>2018-05-06T10:09:36Z</time>
      </trkpt>
      <trkpt lat="42.37279" lon="0.22348">
        <ele>754.6</ele>
        <time>2018-05-06T10:09:37Z</time>
      </trkpt>
      <trkpt lat="42.37267" lon="0.22372">
        <ele>755.5</ele>
        <time>2018-05-06T10:09:40Z</time>
      </trkpt>
      <trkpt lat="42.37257" lon="0.22396">
        <ele>756.6</ele>
        <time>2018-05-06T10:09:44Z</time>
      </trkpt>
      <trkpt lat="42.37246" lon="0.2242">
        <ele>757.4</ele>
        <time>2018-05-06T10:09:51Z</time>
      </trkpt>
      <trkpt lat="42.3723" lon="0.22437">
        <ele>759</ele>
        <time>2018-05-06T10:09:57Z</time>
      </trkpt>
      <trkpt lat="42.37216" lon="0.22456">
        <ele>759</ele>
        <time>2018-05-06T10:10:01Z</time>
      </trkpt>
      <trkpt lat="42.37207" lon="0.2248">
        <ele>757.9</ele>
        <time>2018-05-06T10:10:04Z</time>
      </trkpt>
      <trkpt lat="42.37204" lon="0.2249">
        <ele>757.3</ele>
        <time>2018-05-06T10:10:05Z</time>
      </trkpt>
      <trkpt lat="42.37194" lon="0.22519">
        <ele>756</ele>
        <time>2018-05-06T10:10:08Z</time>
      </trkpt>
      <trkpt lat="42.3719" lon="0.22532">
        <ele>755.5</ele>
        <time>2018-05-06T10:10:10Z</time>
      </trkpt>
      <trkpt lat="42.37185" lon="0.22546">
        <ele>755.2</ele>
        <time>2018-05-06T10:10:14Z</time>
      </trkpt>
      <trkpt lat="42.37183" lon="0.22552">
        <ele>755.1</ele>
        <time>2018-05-06T10:10:17Z</time>
      </trkpt>
      <trkpt lat="42.37171" lon="0.22552">
        <ele>753.1</ele>
        <time>2018-05-06T10:10:26Z</time>
      </trkpt>
      <trkpt lat="42.37162" lon="0.2253">
        <ele>751.5</ele>
        <time>2018-05-06T10:10:34Z</time>
      </trkpt>
      <trkpt lat="42.37153" lon="0.22507">
        <ele>750.9</ele>
        <time>2018-05-06T10:10:47Z</time>
      </trkpt>
      <trkpt lat="42.37144" lon="0.22486">
        <ele>750.2</ele>
        <time>2018-05-06T10:11:11Z</time>
      </trkpt>
      <trkpt lat="42.37137" lon="0.22464">
        <ele>748.2</ele>
        <time>2018-05-06T10:11:39Z</time>
      </trkpt>
      <trkpt lat="42.37135" lon="0.22442">
        <ele>745.9</ele>
        <time>2018-05-06T10:12:08Z</time>
      </trkpt>
      <trkpt lat="42.3713" lon="0.22416">
        <ele>742.7</ele>
        <time>2018-05-06T10:12:15Z</time>
      </trkpt>
      <trkpt lat="42.37125" lon="0.2239">
        <ele>740.6</ele>
        <time>2018-05-06T10:12:22Z</time>
      </trkpt>
      <trkpt lat="42.37112" lon="0.22368">
        <ele>740.2</ele>
        <time>2018-05-06T10:13:12Z</time>
      </trkpt>
      <trkpt lat="42.37101" lon="0.22343">
        <ele>740.1</ele>
        <time>2018-05-06T10:13:20Z</time>
      </trkpt>
      <trkpt lat="42.37096" lon="0.22316">
        <ele>740.1</ele>
        <time>2018-05-06T10:13:25Z</time>
      </trkpt>
      <trkpt lat="42.37093" lon="0.22288">
        <ele>740.1</ele>
        <time>2018-05-06T10:13:31Z</time>
      </trkpt>
      <trkpt lat="42.37091" lon="0.22262">
        <ele>740</ele>
        <time>2018-05-06T10:13:37Z</time>
      </trkpt>
      <trkpt lat="42.37087" lon="0.22238">
        <ele>739.9</ele>
        <time>2018-05-06T10:13:42Z</time>
      </trkpt>
      <trkpt lat="42.37086" lon="0.22228">
        <ele>739.7</ele>
        <time>2018-05-06T10:13:45Z</time>
      </trkpt>
      <trkpt lat="42.37077" lon="0.22202">
        <ele>738.9</ele>
        <time>2018-05-06T10:13:52Z</time>
      </trkpt>
      <trkpt lat="42.37072" lon="0.22188">
        <ele>738.6</ele>
        <time>2018-05-06T10:13:55Z</time>
      </trkpt>
      <trkpt lat="42.37075" lon="0.22162">
        <ele>738.7</ele>
        <time>2018-05-06T10:14:00Z</time>
      </trkpt>
      <trkpt lat="42.37076" lon="0.22158">
        <ele>738.9</ele>
        <time>2018-05-06T10:14:01Z</time>
      </trkpt>
      <trkpt lat="42.37083" lon="0.22134">
        <ele>739.8</ele>
        <time>2018-05-06T10:14:07Z</time>
      </trkpt>
      <trkpt lat="42.37084" lon="0.22107">
        <ele>740.2</ele>
        <time>2018-05-06T10:14:14Z</time>
      </trkpt>
      <trkpt lat="42.37084" lon="0.22082">
        <ele>740.3</ele>
        <time>2018-05-06T10:14:20Z</time>
      </trkpt>
      <trkpt lat="42.37073" lon="0.22063">
        <ele>740.3</ele>
        <time>2018-05-06T10:14:27Z</time>
      </trkpt>
      <trkpt lat="42.37061" lon="0.22041">
        <ele>740.3</ele>
        <time>2018-05-06T10:14:33Z</time>
      </trkpt>
      <trkpt lat="42.37049" lon="0.22022">
        <ele>740.7</ele>
        <time>2018-05-06T10:14:39Z</time>
      </trkpt>
      <trkpt lat="42.37041" lon="0.22">
        <ele>741.7</ele>
        <time>2018-05-06T10:14:45Z</time>
      </trkpt>
      <trkpt lat="42.37036" lon="0.21983">
        <ele>742.1</ele>
        <time>2018-05-06T10:14:52Z</time>
      </trkpt>
      <trkpt lat="42.37032" lon="0.21984">
        <ele>742.1</ele>
        <time>2018-05-06T10:15:33Z</time>
      </trkpt>
      <trkpt lat="42.37029" lon="0.21985">
        <ele>742.1</ele>
        <time>2018-05-06T10:19:45Z</time>
      </trkpt>
      <trkpt lat="42.37011" lon="0.21994">
        <ele>741</ele>
        <time>2018-05-06T10:19:54Z</time>
      </trkpt>
      <trkpt lat="42.36992" lon="0.22003">
        <ele>740.1</ele>
        <time>2018-05-06T10:20:02Z</time>
      </trkpt>
      <trkpt lat="42.36974" lon="0.22013">
        <ele>739.4</ele>
        <time>2018-05-06T10:20:09Z</time>
      </trkpt>
      <trkpt lat="42.36962" lon="0.22018">
        <ele>739.1</ele>
        <time>2018-05-06T10:20:12Z</time>
      </trkpt>
      <trkpt lat="42.36944" lon="0.22023">
        <ele>738.3</ele>
        <time>2018-05-06T10:20:26Z</time>
      </trkpt>
      <trkpt lat="42.36943" lon="0.22017">
        <ele>738.6</ele>
        <time>2018-05-06T10:20:31Z</time>
      </trkpt>
      <trkpt lat="42.36934" lon="0.21994">
        <ele>739</ele>
        <time>2018-05-06T10:20:44Z</time>
      </trkpt>
      <trkpt lat="42.36919" lon="0.21978">
        <ele>738.6</ele>
        <time>2018-05-06T10:20:52Z</time>
      </trkpt>
      <trkpt lat="42.36916" lon="0.21974">
        <ele>738.5</ele>
        <time>2018-05-06T10:20:54Z</time>
      </trkpt>
      <trkpt lat="42.36906" lon="0.21971">
        <ele>738.1</ele>
        <time>2018-05-06T10:21:01Z</time>
      </trkpt>
      <trkpt lat="42.36893" lon="0.21964">
        <ele>737</ele>
        <time>2018-05-06T10:21:08Z</time>
      </trkpt>
      <trkpt lat="42.36886" lon="0.21963">
        <ele>736.2</ele>
        <time>2018-05-06T10:21:12Z</time>
      </trkpt>
      <trkpt lat="42.36868" lon="0.21949">
        <ele>732.6</ele>
        <time>2018-05-06T10:21:33Z</time>
      </trkpt>
      <trkpt lat="42.36855" lon="0.21942">
        <ele>729</ele>
        <time>2018-05-06T10:22:01Z</time>
      </trkpt>
      <trkpt lat="42.36854" lon="0.21964">
        <ele>728.5</ele>
        <time>2018-05-06T10:22:21Z</time>
      </trkpt>
      <trkpt lat="42.36849" lon="0.21966">
        <ele>726.4</ele>
        <time>2018-05-06T10:22:39Z</time>
      </trkpt>
      <trkpt lat="42.36847" lon="0.21961">
        <ele>725.6</ele>
        <time>2018-05-06T10:22:43Z</time>
      </trkpt>
      <trkpt lat="42.36845" lon="0.21963">
        <ele>725.6</ele>
        <time>2018-05-06T10:22:47Z</time>
      </trkpt>
      <trkpt lat="42.36841" lon="0.21972">
        <ele>723.2</ele>
        <time>2018-05-06T10:23:17Z</time>
      </trkpt>
      <trkpt lat="42.36838" lon="0.21968">
        <ele>723.4</ele>
        <time>2018-05-06T10:23:19Z</time>
      </trkpt>
      <trkpt lat="42.36824" lon="0.21952">
        <ele>718.5</ele>
        <time>2018-05-06T10:23:26Z</time>
      </trkpt>
      <trkpt lat="42.36814" lon="0.21931">
        <ele>716</ele>
        <time>2018-05-06T10:23:32Z</time>
      </trkpt>
      <trkpt lat="42.36805" lon="0.21915">
        <ele>713.1</ele>
        <time>2018-05-06T10:24:32Z</time>
      </trkpt>
      <trkpt lat="42.36794" lon="0.21907">
        <ele>710.7</ele>
        <time>2018-05-06T10:24:59Z</time>
      </trkpt>
      <trkpt lat="42.36783" lon="0.21913">
        <ele>708.6</ele>
        <time>2018-05-06T10:25:20Z</time>
      </trkpt>
      <trkpt lat="42.36779" lon="0.21884">
        <ele>706.7</ele>
        <time>2018-05-06T10:25:27Z</time>
      </trkpt>
      <trkpt lat="42.3678" lon="0.21855">
        <ele>705.5</ele>
        <time>2018-05-06T10:25:31Z</time>
      </trkpt>
      <trkpt lat="42.36785" lon="0.21829">
        <ele>704.7</ele>
        <time>2018-05-06T10:25:38Z</time>
      </trkpt>
      <trkpt lat="42.36787" lon="0.21803">
        <ele>704.3</ele>
        <time>2018-05-06T10:25:46Z</time>
      </trkpt>
      <trkpt lat="42.36785" lon="0.21777">
        <ele>703.5</ele>
        <time>2018-05-06T10:25:56Z</time>
      </trkpt>
      <trkpt lat="42.36773" lon="0.21756">
        <ele>702.2</ele>
        <time>2018-05-06T10:26:05Z</time>
      </trkpt>
      <trkpt lat="42.36769" lon="0.21729">
        <ele>701.9</ele>
        <time>2018-05-06T10:26:16Z</time>
      </trkpt>
      <trkpt lat="42.36767" lon="0.21702">
        <ele>701.1</ele>
        <time>2018-05-06T10:26:25Z</time>
      </trkpt>
      <trkpt lat="42.36757" lon="0.21681">
        <ele>700.9</ele>
        <time>2018-05-06T10:26:37Z</time>
      </trkpt>
      <trkpt lat="42.36741" lon="0.21663">
        <ele>701.7</ele>
        <time>2018-05-06T10:26:46Z</time>
      </trkpt>
      <trkpt lat="42.36732" lon="0.21643">
        <ele>701.6</ele>
        <time>2018-05-06T10:26:57Z</time>
      </trkpt>
      <trkpt lat="42.36723" lon="0.21619">
        <ele>700.7</ele>
        <time>2018-05-06T10:27:09Z</time>
      </trkpt>
      <trkpt lat="42.3671" lon="0.216">
        <ele>701.4</ele>
        <time>2018-05-06T10:27:21Z</time>
      </trkpt>
      <trkpt lat="42.36699" lon="0.21578">
        <ele>701.4</ele>
        <time>2018-05-06T10:27:30Z</time>
      </trkpt>
      <trkpt lat="42.36686" lon="0.2156">
        <ele>701.5</ele>
        <time>2018-05-06T10:27:36Z</time>
      </trkpt>
      <trkpt lat="42.36669" lon="0.2155">
        <ele>704</ele>
        <time>2018-05-06T10:27:42Z</time>
      </trkpt>
      <trkpt lat="42.36655" lon="0.21535">
        <ele>704.8</ele>
        <time>2018-05-06T10:27:50Z</time>
      </trkpt>
      <trkpt lat="42.36638" lon="0.21524">
        <ele>707.6</ele>
        <time>2018-05-06T10:27:58Z</time>
      </trkpt>
      <trkpt lat="42.36627" lon="0.21518">
        <ele>710.1</ele>
        <time>2018-05-06T10:28:04Z</time>
      </trkpt>
      <trkpt lat="42.36611" lon="0.21503">
        <ele>711.3</ele>
        <time>2018-05-06T10:28:11Z</time>
      </trkpt>
      <trkpt lat="42.366" lon="0.2148">
        <ele>709.8</ele>
        <time>2018-05-06T10:28:16Z</time>
      </trkpt>
      <trkpt lat="42.36589" lon="0.21459">
        <ele>709.2</ele>
        <time>2018-05-06T10:28:21Z</time>
      </trkpt>
      <trkpt lat="42.36575" lon="0.21444">
        <ele>710.1</ele>
        <time>2018-05-06T10:28:26Z</time>
      </trkpt>
      <trkpt lat="42.36557" lon="0.2143">
        <ele>714.2</ele>
        <time>2018-05-06T10:28:34Z</time>
      </trkpt>
      <trkpt lat="42.36543" lon="0.21413">
        <ele>716.1</ele>
        <time>2018-05-06T10:28:40Z</time>
      </trkpt>
      <trkpt lat="42.36529" lon="0.2139">
        <ele>717.3</ele>
        <time>2018-05-06T10:28:46Z</time>
      </trkpt>
      <trkpt lat="42.36521" lon="0.21373">
        <ele>715.8</ele>
        <time>2018-05-06T10:28:49Z</time>
      </trkpt>
      <trkpt lat="42.36512" lon="0.21351">
        <ele>714.1</ele>
        <time>2018-05-06T10:28:52Z</time>
      </trkpt>
      <trkpt lat="42.36506" lon="0.21336">
        <ele>711.7</ele>
        <time>2018-05-06T10:28:54Z</time>
      </trkpt>
      <trkpt lat="42.36494" lon="0.21316">
        <ele>710.5</ele>
        <time>2018-05-06T10:28:57Z</time>
      </trkpt>
      <trkpt lat="42.36481" lon="0.21295">
        <ele>709.8</ele>
        <time>2018-05-06T10:29:01Z</time>
      </trkpt>
      <trkpt lat="42.36467" lon="0.21274">
        <ele>709</ele>
        <time>2018-05-06T10:29:06Z</time>
      </trkpt>
      <trkpt lat="42.3646" lon="0.21264">
        <ele>709.1</ele>
        <time>2018-05-06T10:29:08Z</time>
      </trkpt>
      <trkpt lat="42.36446" lon="0.21242">
        <ele>708.6</ele>
        <time>2018-05-06T10:29:12Z</time>
      </trkpt>
      <trkpt lat="42.3643" lon="0.21219">
        <ele>709.6</ele>
        <time>2018-05-06T10:29:16Z</time>
      </trkpt>
      <trkpt lat="42.36418" lon="0.21201">
        <ele>709.4</ele>
        <time>2018-05-06T10:29:20Z</time>
      </trkpt>
      <trkpt lat="42.36402" lon="0.21183">
        <ele>709</ele>
        <time>2018-05-06T10:29:25Z</time>
      </trkpt>
      <trkpt lat="42.36386" lon="0.21168">
        <ele>710.2</ele>
        <time>2018-05-06T10:29:30Z</time>
      </trkpt>
      <trkpt lat="42.36368" lon="0.21156">
        <ele>711.3</ele>
        <time>2018-05-06T10:29:34Z</time>
      </trkpt>
      <trkpt lat="42.36347" lon="0.21142">
        <ele>712</ele>
        <time>2018-05-06T10:29:38Z</time>
      </trkpt>
      <trkpt lat="42.36328" lon="0.2113">
        <ele>711.5</ele>
        <time>2018-05-06T10:29:42Z</time>
      </trkpt>
      <trkpt lat="42.36318" lon="0.21125">
        <ele>711</ele>
        <time>2018-05-06T10:29:44Z</time>
      </trkpt>
      <trkpt lat="42.36298" lon="0.21126">
        <ele>711.2</ele>
        <time>2018-05-06T10:29:48Z</time>
      </trkpt>
      <trkpt lat="42.36279" lon="0.21131">
        <ele>712</ele>
        <time>2018-05-06T10:29:52Z</time>
      </trkpt>
      <trkpt lat="42.36259" lon="0.21137">
        <ele>713.2</ele>
        <time>2018-05-06T10:29:57Z</time>
      </trkpt>
      <trkpt lat="42.36251" lon="0.2114">
        <ele>713.5</ele>
        <time>2018-05-06T10:29:59Z</time>
      </trkpt>
      <trkpt lat="42.36232" lon="0.21154">
        <ele>714.7</ele>
        <time>2018-05-06T10:30:04Z</time>
      </trkpt>
      <trkpt lat="42.36215" lon="0.21164">
        <ele>714.7</ele>
        <time>2018-05-06T10:30:10Z</time>
      </trkpt>
      <trkpt lat="42.36198" lon="0.21174">
        <ele>714.6</ele>
        <time>2018-05-06T10:30:17Z</time>
      </trkpt>
      <trkpt lat="42.36184" lon="0.21169">
        <ele>713.8</ele>
        <time>2018-05-06T10:30:22Z</time>
      </trkpt>
      <trkpt lat="42.36176" lon="0.21152">
        <ele>713</ele>
        <time>2018-05-06T10:30:26Z</time>
      </trkpt>
      <trkpt lat="42.36163" lon="0.21133">
        <ele>712.1</ele>
        <time>2018-05-06T10:30:35Z</time>
      </trkpt>
      <trkpt lat="42.36155" lon="0.21131">
        <ele>711.8</ele>
        <time>2018-05-06T10:30:44Z</time>
      </trkpt>
      <trkpt lat="42.36155" lon="0.21135">
        <ele>712</ele>
        <time>2018-05-06T10:30:46Z</time>
      </trkpt>
      <trkpt lat="42.36165" lon="0.21158">
        <ele>713.2</ele>
        <time>2018-05-06T10:30:55Z</time>
      </trkpt>
      <trkpt lat="42.36172" lon="0.21174">
        <ele>713.8</ele>
        <time>2018-05-06T10:31:01Z</time>
      </trkpt>
      <trkpt lat="42.36169" lon="0.21203">
        <ele>713.8</ele>
        <time>2018-05-06T10:31:10Z</time>
      </trkpt>
      <trkpt lat="42.36164" lon="0.21226">
        <ele>712.2</ele>
        <time>2018-05-06T10:31:14Z</time>
      </trkpt>
      <trkpt lat="42.36164" lon="0.2125">
        <ele>711.5</ele>
        <time>2018-05-06T10:31:18Z</time>
      </trkpt>
      <trkpt lat="42.36171" lon="0.21274">
        <ele>712.5</ele>
        <time>2018-05-06T10:31:28Z</time>
      </trkpt>
      <trkpt lat="42.36182" lon="0.21296">
        <ele>715.3</ele>
        <time>2018-05-06T10:31:36Z</time>
      </trkpt>
      <trkpt lat="42.36168" lon="0.21317">
        <ele>712.8</ele>
        <time>2018-05-06T10:32:08Z</time>
      </trkpt>
      <trkpt lat="42.36157" lon="0.21332">
        <ele>710.2</ele>
        <time>2018-05-06T10:32:17Z</time>
      </trkpt>
      <trkpt lat="42.3614" lon="0.21344">
        <ele>706.6</ele>
        <time>2018-05-06T10:32:28Z</time>
      </trkpt>
      <trkpt lat="42.36123" lon="0.21356">
        <ele>703.5</ele>
        <time>2018-05-06T10:32:34Z</time>
      </trkpt>
      <trkpt lat="42.36106" lon="0.21368">
        <ele>699.9</ele>
        <time>2018-05-06T10:32:39Z</time>
      </trkpt>
      <trkpt lat="42.36089" lon="0.21375">
        <ele>694.4</ele>
        <time>2018-05-06T10:32:44Z</time>
      </trkpt>
      <trkpt lat="42.36084" lon="0.21378">
        <ele>693.7</ele>
        <time>2018-05-06T10:32:45Z</time>
      </trkpt>
      <trkpt lat="42.36071" lon="0.21399">
        <ele>691.6</ele>
        <time>2018-05-06T10:32:49Z</time>
      </trkpt>
      <trkpt lat="42.36069" lon="0.21404">
        <ele>691</ele>
        <time>2018-05-06T10:32:50Z</time>
      </trkpt>
      <trkpt lat="42.36068" lon="0.21429">
        <ele>694.2</ele>
        <time>2018-05-06T10:32:54Z</time>
      </trkpt>
      <trkpt lat="42.36066" lon="0.21456">
        <ele>696.1</ele>
        <time>2018-05-06T10:32:59Z</time>
      </trkpt>
      <trkpt lat="42.36063" lon="0.21483">
        <ele>696.7</ele>
        <time>2018-05-06T10:33:04Z</time>
      </trkpt>
      <trkpt lat="42.3606" lon="0.2151">
        <ele>696.3</ele>
        <time>2018-05-06T10:33:08Z</time>
      </trkpt>
      <trkpt lat="42.36057" lon="0.21539">
        <ele>695</ele>
        <time>2018-05-06T10:33:12Z</time>
      </trkpt>
      <trkpt lat="42.36055" lon="0.21565">
        <ele>694.5</ele>
        <time>2018-05-06T10:33:18Z</time>
      </trkpt>
      <trkpt lat="42.36051" lon="0.2159">
        <ele>692.9</ele>
        <time>2018-05-06T10:33:24Z</time>
      </trkpt>
      <trkpt lat="42.3605" lon="0.21602">
        <ele>692.8</ele>
        <time>2018-05-06T10:33:26Z</time>
      </trkpt>
      <trkpt lat="42.36054" lon="0.21625">
        <ele>693</ele>
        <time>2018-05-06T10:33:32Z</time>
      </trkpt>
      <trkpt lat="42.3605" lon="0.21632">
        <ele>692.6</ele>
        <time>2018-05-06T10:33:34Z</time>
      </trkpt>
      <trkpt lat="42.36045" lon="0.21657">
        <ele>692.3</ele>
        <time>2018-05-06T10:33:40Z</time>
      </trkpt>
      <trkpt lat="42.36044" lon="0.21682">
        <ele>692.4</ele>
        <time>2018-05-06T10:33:48Z</time>
      </trkpt>
      <trkpt lat="42.36045" lon="0.21707">
        <ele>692.7</ele>
        <time>2018-05-06T10:34:02Z</time>
      </trkpt>
      <trkpt lat="42.36048" lon="0.21733">
        <ele>693</ele>
        <time>2018-05-06T10:34:11Z</time>
      </trkpt>
      <trkpt lat="42.36052" lon="0.2176">
        <ele>693</ele>
        <time>2018-05-06T10:34:26Z</time>
      </trkpt>
      <trkpt lat="42.36051" lon="0.21764">
        <ele>692.8</ele>
        <time>2018-05-06T10:34:27Z</time>
      </trkpt>
      <trkpt lat="42.36046" lon="0.21758">
        <ele>692.6</ele>
        <time>2018-05-06T10:34:52Z</time>
      </trkpt>
      <trkpt lat="42.36035" lon="0.21739">
        <ele>692.4</ele>
        <time>2018-05-06T10:35:06Z</time>
      </trkpt>
      <trkpt lat="42.36017" lon="0.21735">
        <ele>692.3</ele>
        <time>2018-05-06T10:35:29Z</time>
      </trkpt>
      <trkpt lat="42.36008" lon="0.21716">
        <ele>692.7</ele>
        <time>2018-05-06T10:36:00Z</time>
      </trkpt>
      <trkpt lat="42.35994" lon="0.217">
        <ele>694.3</ele>
        <time>2018-05-06T10:36:25Z</time>
      </trkpt>
      <trkpt lat="42.35978" lon="0.21685">
        <ele>696.9</ele>
        <time>2018-05-06T10:36:37Z</time>
      </trkpt>
      <trkpt lat="42.35967" lon="0.21666">
        <ele>698.7</ele>
        <time>2018-05-06T10:36:46Z</time>
      </trkpt>
      <trkpt lat="42.35959" lon="0.21644">
        <ele>698.1</ele>
        <time>2018-05-06T10:36:58Z</time>
      </trkpt>
      <trkpt lat="42.35951" lon="0.21622">
        <ele>697</ele>
        <time>2018-05-06T10:37:08Z</time>
      </trkpt>
      <trkpt lat="42.35946" lon="0.21612">
        <ele>696.9</ele>
        <time>2018-05-06T10:37:13Z</time>
      </trkpt>
      <trkpt lat="42.35943" lon="0.21606">
        <ele>696.1</ele>
        <time>2018-05-06T10:37:17Z</time>
      </trkpt>
      <trkpt lat="42.35925" lon="0.21596">
        <ele>697.7</ele>
        <time>2018-05-06T10:37:34Z</time>
      </trkpt>
      <trkpt lat="42.35915" lon="0.21591">
        <ele>698.9</ele>
        <time>2018-05-06T10:37:38Z</time>
      </trkpt>
      <trkpt lat="42.35897" lon="0.21583">
        <ele>701.1</ele>
        <time>2018-05-06T10:37:47Z</time>
      </trkpt>
      <trkpt lat="42.35883" lon="0.21577">
        <ele>702.6</ele>
        <time>2018-05-06T10:37:56Z</time>
      </trkpt>
      <trkpt lat="42.35864" lon="0.2157">
        <ele>704.7</ele>
        <time>2018-05-06T10:38:06Z</time>
      </trkpt>
      <trkpt lat="42.35851" lon="0.21571">
        <ele>707.7</ele>
        <time>2018-05-06T10:38:12Z</time>
      </trkpt>
      <trkpt lat="42.35834" lon="0.21564">
        <ele>708.4</ele>
        <time>2018-05-06T10:38:22Z</time>
      </trkpt>
      <trkpt lat="42.35831" lon="0.21565">
        <ele>709.6</ele>
        <time>2018-05-06T10:38:24Z</time>
      </trkpt>
      <trkpt lat="42.35816" lon="0.21581">
        <ele>713.2</ele>
        <time>2018-05-06T10:38:34Z</time>
      </trkpt>
      <trkpt lat="42.35805" lon="0.21586">
        <ele>713.6</ele>
        <time>2018-05-06T10:38:40Z</time>
      </trkpt>
      <trkpt lat="42.35793" lon="0.21605">
        <ele>713</ele>
        <time>2018-05-06T10:38:50Z</time>
      </trkpt>
      <trkpt lat="42.35778" lon="0.21616">
        <ele>713.7</ele>
        <time>2018-05-06T10:39:22Z</time>
      </trkpt>
      <trkpt lat="42.35778" lon="0.2162">
        <ele>713.7</ele>
        <time>2018-05-06T10:39:23Z</time>
      </trkpt>
      <trkpt lat="42.35782" lon="0.21646">
        <ele>713.7</ele>
        <time>2018-05-06T10:39:29Z</time>
      </trkpt>
      <trkpt lat="42.35783" lon="0.21673">
        <ele>714.5</ele>
        <time>2018-05-06T10:39:34Z</time>
      </trkpt>
      <trkpt lat="42.35784" lon="0.21677">
        <ele>714.9</ele>
        <time>2018-05-06T10:39:35Z</time>
      </trkpt>
      <trkpt lat="42.35792" lon="0.21699">
        <ele>716.6</ele>
        <time>2018-05-06T10:39:41Z</time>
      </trkpt>
      <trkpt lat="42.35804" lon="0.21718">
        <ele>718.2</ele>
        <time>2018-05-06T10:39:48Z</time>
      </trkpt>
      <trkpt lat="42.35816" lon="0.21737">
        <ele>719.7</ele>
        <time>2018-05-06T10:39:56Z</time>
      </trkpt>
      <trkpt lat="42.35823" lon="0.21761">
        <ele>720.9</ele>
        <time>2018-05-06T10:40:05Z</time>
      </trkpt>
      <trkpt lat="42.35829" lon="0.21785">
        <ele>720.8</ele>
        <time>2018-05-06T10:40:15Z</time>
      </trkpt>
      <trkpt lat="42.35828" lon="0.2181">
        <ele>721.7</ele>
        <time>2018-05-06T10:40:26Z</time>
      </trkpt>
      <trkpt lat="42.35819" lon="0.21832">
        <ele>730.1</ele>
        <time>2018-05-06T10:40:37Z</time>
      </trkpt>
      <trkpt lat="42.35817" lon="0.21857">
        <ele>740.5</ele>
        <time>2018-05-06T10:40:49Z</time>
      </trkpt>
      <trkpt lat="42.35822" lon="0.21859">
        <ele>741</ele>
        <time>2018-05-06T10:40:54Z</time>
      </trkpt>
      <trkpt lat="42.35838" lon="0.21851">
        <ele>742.2</ele>
        <time>2018-05-06T10:41:04Z</time>
      </trkpt>
      <trkpt lat="42.35855" lon="0.21853">
        <ele>742</ele>
        <time>2018-05-06T10:41:15Z</time>
      </trkpt>
      <trkpt lat="42.35869" lon="0.21869">
        <ele>741.1</ele>
        <time>2018-05-06T10:41:25Z</time>
      </trkpt>
      <trkpt lat="42.35885" lon="0.21885">
        <ele>740.1</ele>
        <time>2018-05-06T10:41:36Z</time>
      </trkpt>
      <trkpt lat="42.35904" lon="0.21894">
        <ele>739.3</ele>
        <time>2018-05-06T10:41:43Z</time>
      </trkpt>
      <trkpt lat="42.35918" lon="0.21913">
        <ele>737.7</ele>
        <time>2018-05-06T10:41:50Z</time>
      </trkpt>
      <trkpt lat="42.35928" lon="0.2192">
        <ele>736.5</ele>
        <time>2018-05-06T10:41:53Z</time>
      </trkpt>
      <trkpt lat="42.35941" lon="0.21917">
        <ele>735</ele>
        <time>2018-05-06T10:41:57Z</time>
      </trkpt>
      <trkpt lat="42.35959" lon="0.21916">
        <ele>733.8</ele>
        <time>2018-05-06T10:42:04Z</time>
      </trkpt>
      <trkpt lat="42.35976" lon="0.21925">
        <ele>732.2</ele>
        <time>2018-05-06T10:42:11Z</time>
      </trkpt>
      <trkpt lat="42.35994" lon="0.21934">
        <ele>731.5</ele>
        <time>2018-05-06T10:42:18Z</time>
      </trkpt>
      <trkpt lat="42.36013" lon="0.21937">
        <ele>729.6</ele>
        <time>2018-05-06T10:42:25Z</time>
      </trkpt>
      <trkpt lat="42.36032" lon="0.21937">
        <ele>729.6</ele>
        <time>2018-05-06T10:42:31Z</time>
      </trkpt>
      <trkpt lat="42.36049" lon="0.21944">
        <ele>729.3</ele>
        <time>2018-05-06T10:42:37Z</time>
      </trkpt>
      <trkpt lat="42.36064" lon="0.21958">
        <ele>733.3</ele>
        <time>2018-05-06T10:42:45Z</time>
      </trkpt>
      <trkpt lat="42.3608" lon="0.21972">
        <ele>738.6</ele>
        <time>2018-05-06T10:42:53Z</time>
      </trkpt>
      <trkpt lat="42.36094" lon="0.21988">
        <ele>743.8</ele>
        <time>2018-05-06T10:43:02Z</time>
      </trkpt>
      <trkpt lat="42.36106" lon="0.22008">
        <ele>747.5</ele>
        <time>2018-05-06T10:43:12Z</time>
      </trkpt>
      <trkpt lat="42.36117" lon="0.22028">
        <ele>751.5</ele>
        <time>2018-05-06T10:43:23Z</time>
      </trkpt>
      <trkpt lat="42.36125" lon="0.2205">
        <ele>755.9</ele>
        <time>2018-05-06T10:43:35Z</time>
      </trkpt>
      <trkpt lat="42.36128" lon="0.2206">
        <ele>757.8</ele>
        <time>2018-05-06T10:43:41Z</time>
      </trkpt>
      <trkpt lat="42.36128" lon="0.22069">
        <ele>759.5</ele>
        <time>2018-05-06T10:43:45Z</time>
      </trkpt>
      <trkpt lat="42.36126" lon="0.22085">
        <ele>761.2</ele>
        <time>2018-05-06T10:43:52Z</time>
      </trkpt>
      <trkpt lat="42.36111" lon="0.22091">
        <ele>759.7</ele>
        <time>2018-05-06T10:44:09Z</time>
      </trkpt>
      <trkpt lat="42.36105" lon="0.22068">
        <ele>756.3</ele>
        <time>2018-05-06T10:44:22Z</time>
      </trkpt>
      <trkpt lat="42.36104" lon="0.2206">
        <ele>756.5</ele>
        <time>2018-05-06T10:44:26Z</time>
      </trkpt>
      <trkpt lat="42.36101" lon="0.22052">
        <ele>757.2</ele>
        <time>2018-05-06T10:44:32Z</time>
      </trkpt>
      <trkpt lat="42.36084" lon="0.22051">
        <ele>764.7</ele>
        <time>2018-05-06T10:44:41Z</time>
      </trkpt>
      <trkpt lat="42.36082" lon="0.22062">
        <ele>766.9</ele>
        <time>2018-05-06T10:44:50Z</time>
      </trkpt>
      <trkpt lat="42.36082" lon="0.22073">
        <ele>768.8</ele>
        <time>2018-05-06T10:44:57Z</time>
      </trkpt>
      <trkpt lat="42.36082" lon="0.22083">
        <ele>770.6</ele>
        <time>2018-05-06T10:45:04Z</time>
      </trkpt>
      <trkpt lat="42.36084" lon="0.22089">
        <ele>771.9</ele>
        <time>2018-05-06T10:45:09Z</time>
      </trkpt>
      <trkpt lat="42.3608" lon="0.22113">
        <ele>778.9</ele>
        <time>2018-05-06T10:45:24Z</time>
      </trkpt>
      <trkpt lat="42.36076" lon="0.22119">
        <ele>780.9</ele>
        <time>2018-05-06T10:45:27Z</time>
      </trkpt>
      <trkpt lat="42.36066" lon="0.2214">
        <ele>787.1</ele>
        <time>2018-05-06T10:45:39Z</time>
      </trkpt>
      <trkpt lat="42.3606" lon="0.22163">
        <ele>793.5</ele>
        <time>2018-05-06T10:45:52Z</time>
      </trkpt>
      <trkpt lat="42.36057" lon="0.22185">
        <ele>796.2</ele>
        <time>2018-05-06T10:46:06Z</time>
      </trkpt>
      <trkpt lat="42.36064" lon="0.22207">
        <ele>796.2</ele>
        <time>2018-05-06T10:46:16Z</time>
      </trkpt>
      <trkpt lat="42.36071" lon="0.22231">
        <ele>797.3</ele>
        <time>2018-05-06T10:46:26Z</time>
      </trkpt>
      <trkpt lat="42.36081" lon="0.22251">
        <ele>796.2</ele>
        <time>2018-05-06T10:46:35Z</time>
      </trkpt>
      <trkpt lat="42.36093" lon="0.22271">
        <ele>794.6</ele>
        <time>2018-05-06T10:46:44Z</time>
      </trkpt>
      <trkpt lat="42.36098" lon="0.22297">
        <ele>794.1</ele>
        <time>2018-05-06T10:46:53Z</time>
      </trkpt>
      <trkpt lat="42.36108" lon="0.22322">
        <ele>793</ele>
        <time>2018-05-06T10:46:58Z</time>
      </trkpt>
      <trkpt lat="42.36117" lon="0.22341">
        <ele>792.1</ele>
        <time>2018-05-06T10:47:01Z</time>
      </trkpt>
      <trkpt lat="42.36128" lon="0.22368">
        <ele>792.2</ele>
        <time>2018-05-06T10:47:04Z</time>
      </trkpt>
      <trkpt lat="42.3613" lon="0.22373">
        <ele>792</ele>
        <time>2018-05-06T10:47:05Z</time>
      </trkpt>
      <trkpt lat="42.36139" lon="0.22396">
        <ele>794.6</ele>
        <time>2018-05-06T10:47:09Z</time>
      </trkpt>
      <trkpt lat="42.36138" lon="0.22422">
        <ele>799.5</ele>
        <time>2018-05-06T10:47:16Z</time>
      </trkpt>
      <trkpt lat="42.36126" lon="0.22441">
        <ele>805</ele>
        <time>2018-05-06T10:47:26Z</time>
      </trkpt>
      <trkpt lat="42.3611" lon="0.22455">
        <ele>809.8</ele>
        <time>2018-05-06T10:47:36Z</time>
      </trkpt>
      <trkpt lat="42.36093" lon="0.22465">
        <ele>814.1</ele>
        <time>2018-05-06T10:47:47Z</time>
      </trkpt>
      <trkpt lat="42.36075" lon="0.22472">
        <ele>819.3</ele>
        <time>2018-05-06T10:48:01Z</time>
      </trkpt>
      <trkpt lat="42.36066" lon="0.22484">
        <ele>818</ele>
        <time>2018-05-06T10:48:12Z</time>
      </trkpt>
      <trkpt lat="42.36069" lon="0.22491">
        <ele>817.2</ele>
        <time>2018-05-06T10:48:17Z</time>
      </trkpt>
      <trkpt lat="42.36085" lon="0.22505">
        <ele>814.8</ele>
        <time>2018-05-06T10:48:30Z</time>
      </trkpt>
      <trkpt lat="42.36098" lon="0.22511">
        <ele>815.1</ele>
        <time>2018-05-06T10:48:37Z</time>
      </trkpt>
      <trkpt lat="42.36088" lon="0.22523">
        <ele>817.1</ele>
        <time>2018-05-06T10:51:16Z</time>
      </trkpt>
      <trkpt lat="42.3607" lon="0.22522">
        <ele>820.1</ele>
        <time>2018-05-06T10:51:28Z</time>
      </trkpt>
      <trkpt lat="42.36053" lon="0.2253">
        <ele>823</ele>
        <time>2018-05-06T10:51:41Z</time>
      </trkpt>
      <trkpt lat="42.36035" lon="0.22543">
        <ele>825.9</ele>
        <time>2018-05-06T10:51:55Z</time>
      </trkpt>
      <trkpt lat="42.36018" lon="0.2255">
        <ele>828.2</ele>
        <time>2018-05-06T10:52:06Z</time>
      </trkpt>
      <trkpt lat="42.35998" lon="0.22551">
        <ele>830.6</ele>
        <time>2018-05-06T10:52:17Z</time>
      </trkpt>
      <trkpt lat="42.35985" lon="0.22553">
        <ele>831.6</ele>
        <time>2018-05-06T10:52:24Z</time>
      </trkpt>
      <trkpt lat="42.3598" lon="0.22564">
        <ele>831.9</ele>
        <time>2018-05-06T10:52:29Z</time>
      </trkpt>
      <trkpt lat="42.35973" lon="0.22589">
        <ele>832.3</ele>
        <time>2018-05-06T10:52:39Z</time>
      </trkpt>
      <trkpt lat="42.35959" lon="0.22608">
        <ele>833.1</ele>
        <time>2018-05-06T10:52:50Z</time>
      </trkpt>
      <trkpt lat="42.35947" lon="0.22629">
        <ele>833.4</ele>
        <time>2018-05-06T10:52:59Z</time>
      </trkpt>
      <trkpt lat="42.35928" lon="0.22639">
        <ele>834.5</ele>
        <time>2018-05-06T10:53:06Z</time>
      </trkpt>
      <trkpt lat="42.35907" lon="0.22636">
        <ele>835.3</ele>
        <time>2018-05-06T10:53:12Z</time>
      </trkpt>
      <trkpt lat="42.35891" lon="0.22647">
        <ele>834.4</ele>
        <time>2018-05-06T10:53:21Z</time>
      </trkpt>
      <trkpt lat="42.35879" lon="0.22666">
        <ele>833.6</ele>
        <time>2018-05-06T10:53:30Z</time>
      </trkpt>
      <trkpt lat="42.35864" lon="0.22682">
        <ele>833.5</ele>
        <time>2018-05-06T10:53:38Z</time>
      </trkpt>
      <trkpt lat="42.35845" lon="0.22692">
        <ele>834.4</ele>
        <time>2018-05-06T10:53:47Z</time>
      </trkpt>
      <trkpt lat="42.35825" lon="0.22698">
        <ele>835.4</ele>
        <time>2018-05-06T10:53:58Z</time>
      </trkpt>
      <trkpt lat="42.35807" lon="0.22706">
        <ele>838.5</ele>
        <time>2018-05-06T10:54:12Z</time>
      </trkpt>
      <trkpt lat="42.35791" lon="0.22719">
        <ele>841.1</ele>
        <time>2018-05-06T10:54:28Z</time>
      </trkpt>
      <trkpt lat="42.35776" lon="0.22734">
        <ele>844.1</ele>
        <time>2018-05-06T10:54:43Z</time>
      </trkpt>
      <trkpt lat="42.35765" lon="0.22754">
        <ele>846.4</ele>
        <time>2018-05-06T10:55:00Z</time>
      </trkpt>
      <trkpt lat="42.35759" lon="0.22778">
        <ele>847.7</ele>
        <time>2018-05-06T10:55:13Z</time>
      </trkpt>
      <trkpt lat="42.35756" lon="0.22802">
        <ele>849.5</ele>
        <time>2018-05-06T10:55:26Z</time>
      </trkpt>
      <trkpt lat="42.35753" lon="0.22828">
        <ele>851.5</ele>
        <time>2018-05-06T10:55:39Z</time>
      </trkpt>
      <trkpt lat="42.35742" lon="0.22848">
        <ele>853.2</ele>
        <time>2018-05-06T10:55:54Z</time>
      </trkpt>
      <trkpt lat="42.35728" lon="0.22861">
        <ele>855.4</ele>
        <time>2018-05-06T10:56:06Z</time>
      </trkpt>
      <trkpt lat="42.35712" lon="0.22878">
        <ele>858.4</ele>
        <time>2018-05-06T10:56:16Z</time>
      </trkpt>
      <trkpt lat="42.35706" lon="0.22885">
        <ele>859.7</ele>
        <time>2018-05-06T10:56:22Z</time>
      </trkpt>
      <trkpt lat="42.35687" lon="0.22888">
        <ele>858.9</ele>
        <time>2018-05-06T10:56:39Z</time>
      </trkpt>
      <trkpt lat="42.3567" lon="0.22898">
        <ele>857.7</ele>
        <time>2018-05-06T10:56:58Z</time>
      </trkpt>
      <trkpt lat="42.35651" lon="0.22898">
        <ele>857.9</ele>
        <time>2018-05-06T10:57:06Z</time>
      </trkpt>
      <trkpt lat="42.35633" lon="0.22894">
        <ele>858.1</ele>
        <time>2018-05-06T10:57:13Z</time>
      </trkpt>
      <trkpt lat="42.35615" lon="0.22885">
        <ele>860.4</ele>
        <time>2018-05-06T10:57:21Z</time>
      </trkpt>
      <trkpt lat="42.35596" lon="0.22878">
        <ele>862.2</ele>
        <time>2018-05-06T10:57:28Z</time>
      </trkpt>
      <trkpt lat="42.35578" lon="0.22883">
        <ele>865.4</ele>
        <time>2018-05-06T10:57:36Z</time>
      </trkpt>
      <trkpt lat="42.35559" lon="0.22893">
        <ele>866.9</ele>
        <time>2018-05-06T10:57:45Z</time>
      </trkpt>
      <trkpt lat="42.35539" lon="0.22897">
        <ele>869.6</ele>
        <time>2018-05-06T10:57:53Z</time>
      </trkpt>
      <trkpt lat="42.35523" lon="0.2291">
        <ele>870</ele>
        <time>2018-05-06T10:57:59Z</time>
      </trkpt>
      <trkpt lat="42.35515" lon="0.22913">
        <ele>870.3</ele>
        <time>2018-05-06T10:58:02Z</time>
      </trkpt>
      <trkpt lat="42.35498" lon="0.22903">
        <ele>871.1</ele>
        <time>2018-05-06T10:58:09Z</time>
      </trkpt>
      <trkpt lat="42.3548" lon="0.22896">
        <ele>871.4</ele>
        <time>2018-05-06T10:58:15Z</time>
      </trkpt>
      <trkpt lat="42.35462" lon="0.22892">
        <ele>873.3</ele>
        <time>2018-05-06T10:58:23Z</time>
      </trkpt>
      <trkpt lat="42.35443" lon="0.2289">
        <ele>875.7</ele>
        <time>2018-05-06T10:58:31Z</time>
      </trkpt>
      <trkpt lat="42.35427" lon="0.2288">
        <ele>879.4</ele>
        <time>2018-05-06T10:58:39Z</time>
      </trkpt>
      <trkpt lat="42.35418" lon="0.22858">
        <ele>879.9</ele>
        <time>2018-05-06T10:58:52Z</time>
      </trkpt>
      <trkpt lat="42.35408" lon="0.22836">
        <ele>878.6</ele>
        <time>2018-05-06T10:59:09Z</time>
      </trkpt>
      <trkpt lat="42.35396" lon="0.22818">
        <ele>877.1</ele>
        <time>2018-05-06T10:59:22Z</time>
      </trkpt>
      <trkpt lat="42.35388" lon="0.22806">
        <ele>876.6</ele>
        <time>2018-05-06T10:59:32Z</time>
      </trkpt>
      <trkpt lat="42.35371" lon="0.22797">
        <ele>876.4</ele>
        <time>2018-05-06T10:59:46Z</time>
      </trkpt>
      <trkpt lat="42.35354" lon="0.22798">
        <ele>879.1</ele>
        <time>2018-05-06T11:00:03Z</time>
      </trkpt>
      <trkpt lat="42.35337" lon="0.22808">
        <ele>884.3</ele>
        <time>2018-05-06T11:00:19Z</time>
      </trkpt>
      <trkpt lat="42.35318" lon="0.22816">
        <ele>889.4</ele>
        <time>2018-05-06T11:00:34Z</time>
      </trkpt>
      <trkpt lat="42.35306" lon="0.22817">
        <ele>892.1</ele>
        <time>2018-05-06T11:00:43Z</time>
      </trkpt>
      <trkpt lat="42.35286" lon="0.22815">
        <ele>895.3</ele>
        <time>2018-05-06T11:00:53Z</time>
      </trkpt>
      <trkpt lat="42.35266" lon="0.22813">
        <ele>898.2</ele>
        <time>2018-05-06T11:01:00Z</time>
      </trkpt>
      <trkpt lat="42.35246" lon="0.22814">
        <ele>901.2</ele>
        <time>2018-05-06T11:01:07Z</time>
      </trkpt>
      <trkpt lat="42.35227" lon="0.22812">
        <ele>902.9</ele>
        <time>2018-05-06T11:01:14Z</time>
      </trkpt>
      <trkpt lat="42.35207" lon="0.22818">
        <ele>904.6</ele>
        <time>2018-05-06T11:01:22Z</time>
      </trkpt>
      <trkpt lat="42.3519" lon="0.22829">
        <ele>905.6</ele>
        <time>2018-05-06T11:03:26Z</time>
      </trkpt>
      <trkpt lat="42.35179" lon="0.22851">
        <ele>905.8</ele>
        <time>2018-05-06T11:03:35Z</time>
      </trkpt>
      <trkpt lat="42.35162" lon="0.22856">
        <ele>905.2</ele>
        <time>2018-05-06T11:03:45Z</time>
      </trkpt>
      <trkpt lat="42.35154" lon="0.22838">
        <ele>904.3</ele>
        <time>2018-05-06T11:03:53Z</time>
      </trkpt>
      <trkpt lat="42.3514" lon="0.22825">
        <ele>905.4</ele>
        <time>2018-05-06T11:04:01Z</time>
      </trkpt>
      <trkpt lat="42.35121" lon="0.22822">
        <ele>906.5</ele>
        <time>2018-05-06T11:04:11Z</time>
      </trkpt>
      <trkpt lat="42.35101" lon="0.22817">
        <ele>907.8</ele>
        <time>2018-05-06T11:04:20Z</time>
      </trkpt>
      <trkpt lat="42.35084" lon="0.22824">
        <ele>906.4</ele>
        <time>2018-05-06T11:04:30Z</time>
      </trkpt>
      <trkpt lat="42.35064" lon="0.22828">
        <ele>904.6</ele>
        <time>2018-05-06T11:04:40Z</time>
      </trkpt>
      <trkpt lat="42.35054" lon="0.22828">
        <ele>903.5</ele>
        <time>2018-05-06T11:04:45Z</time>
      </trkpt>
      <trkpt lat="42.35047" lon="0.2282">
        <ele>904.7</ele>
        <time>2018-05-06T11:04:50Z</time>
      </trkpt>
      <trkpt lat="42.35035" lon="0.22802">
        <ele>906.2</ele>
        <time>2018-05-06T11:04:56Z</time>
      </trkpt>
      <trkpt lat="42.35016" lon="0.22794">
        <ele>902.8</ele>
        <time>2018-05-06T11:05:02Z</time>
      </trkpt>
      <trkpt lat="42.35" lon="0.22781">
        <ele>900.4</ele>
        <time>2018-05-06T11:05:09Z</time>
      </trkpt>
      <trkpt lat="42.3499" lon="0.22759">
        <ele>901.6</ele>
        <time>2018-05-06T11:05:15Z</time>
      </trkpt>
      <trkpt lat="42.34987" lon="0.22753">
        <ele>902.1</ele>
        <time>2018-05-06T11:05:17Z</time>
      </trkpt>
      <trkpt lat="42.34976" lon="0.22729">
        <ele>901</ele>
        <time>2018-05-06T11:05:23Z</time>
      </trkpt>
      <trkpt lat="42.34973" lon="0.22705">
        <ele>904.6</ele>
        <time>2018-05-06T11:05:29Z</time>
      </trkpt>
      <trkpt lat="42.34971" lon="0.22702">
        <ele>905.6</ele>
        <time>2018-05-06T11:05:30Z</time>
      </trkpt>
      <trkpt lat="42.34955" lon="0.22684">
        <ele>900.5</ele>
        <time>2018-05-06T11:05:37Z</time>
      </trkpt>
      <trkpt lat="42.34942" lon="0.22663">
        <ele>897.2</ele>
        <time>2018-05-06T11:05:43Z</time>
      </trkpt>
      <trkpt lat="42.34932" lon="0.22642">
        <ele>895.2</ele>
        <time>2018-05-06T11:05:51Z</time>
      </trkpt>
      <trkpt lat="42.34928" lon="0.22641">
        <ele>892.7</ele>
        <time>2018-05-06T11:05:54Z</time>
      </trkpt>
      <trkpt lat="42.34911" lon="0.22631">
        <ele>886.8</ele>
        <time>2018-05-06T11:06:02Z</time>
      </trkpt>
      <trkpt lat="42.34908" lon="0.22627">
        <ele>886.1</ele>
        <time>2018-05-06T11:06:04Z</time>
      </trkpt>
      <trkpt lat="42.34888" lon="0.22621">
        <ele>880</ele>
        <time>2018-05-06T11:06:36Z</time>
      </trkpt>
      <trkpt lat="42.34879" lon="0.22623">
        <ele>877.4</ele>
        <time>2018-05-06T11:06:40Z</time>
      </trkpt>
      <trkpt lat="42.34876" lon="0.22623">
        <ele>876.8</ele>
        <time>2018-05-06T11:06:42Z</time>
      </trkpt>
      <trkpt lat="42.34859" lon="0.22617">
        <ele>873.6</ele>
        <time>2018-05-06T11:06:56Z</time>
      </trkpt>
      <trkpt lat="42.34843" lon="0.22633">
        <ele>869.9</ele>
        <time>2018-05-06T11:07:05Z</time>
      </trkpt>
      <trkpt lat="42.34843" lon="0.22653">
        <ele>870.1</ele>
        <time>2018-05-06T11:07:31Z</time>
      </trkpt>
      <trkpt lat="42.34859" lon="0.22667">
        <ele>871.2</ele>
        <time>2018-05-06T11:07:38Z</time>
      </trkpt>
      <trkpt lat="42.34871" lon="0.22685">
        <ele>871.1</ele>
        <time>2018-05-06T11:07:45Z</time>
      </trkpt>
      <trkpt lat="42.34878" lon="0.22709">
        <ele>870.4</ele>
        <time>2018-05-06T11:08:14Z</time>
      </trkpt>
      <trkpt lat="42.3489" lon="0.22729">
        <ele>869.7</ele>
        <time>2018-05-06T11:08:27Z</time>
      </trkpt>
      <trkpt lat="42.34894" lon="0.22752">
        <ele>868.3</ele>
        <time>2018-05-06T11:08:54Z</time>
      </trkpt>
      <trkpt lat="42.34895" lon="0.22756">
        <ele>868.1</ele>
        <time>2018-05-06T11:08:56Z</time>
      </trkpt>
      <trkpt lat="42.34901" lon="0.22769">
        <ele>868</ele>
        <time>2018-05-06T11:09:02Z</time>
      </trkpt>
      <trkpt lat="42.34908" lon="0.2279">
        <ele>866.2</ele>
        <time>2018-05-06T11:09:11Z</time>
      </trkpt>
      <trkpt lat="42.34914" lon="0.22816">
        <ele>863.4</ele>
        <time>2018-05-06T11:09:19Z</time>
      </trkpt>
      <trkpt lat="42.34925" lon="0.2284">
        <ele>862.2</ele>
        <time>2018-05-06T11:09:26Z</time>
      </trkpt>
      <trkpt lat="42.34933" lon="0.22864">
        <ele>861.4</ele>
        <time>2018-05-06T11:09:36Z</time>
      </trkpt>
      <trkpt lat="42.34942" lon="0.22887">
        <ele>861.7</ele>
        <time>2018-05-06T11:09:49Z</time>
      </trkpt>
      <trkpt lat="42.34947" lon="0.22913">
        <ele>860.6</ele>
        <time>2018-05-06T11:10:00Z</time>
      </trkpt>
      <trkpt lat="42.34948" lon="0.22916">
        <ele>860</ele>
        <time>2018-05-06T11:10:02Z</time>
      </trkpt>
      <trkpt lat="42.34942" lon="0.22926">
        <ele>857.8</ele>
        <time>2018-05-06T11:10:08Z</time>
      </trkpt>
      <trkpt lat="42.34922" lon="0.22925">
        <ele>850.4</ele>
        <time>2018-05-06T11:10:15Z</time>
      </trkpt>
      <trkpt lat="42.34904" lon="0.22937">
        <ele>845.7</ele>
        <time>2018-05-06T11:10:21Z</time>
      </trkpt>
      <trkpt lat="42.34888" lon="0.22951">
        <ele>841.7</ele>
        <time>2018-05-06T11:10:27Z</time>
      </trkpt>
      <trkpt lat="42.34877" lon="0.22973">
        <ele>839.6</ele>
        <time>2018-05-06T11:10:34Z</time>
      </trkpt>
      <trkpt lat="42.34871" lon="0.22999">
        <ele>840.9</ele>
        <time>2018-05-06T11:10:43Z</time>
      </trkpt>
      <trkpt lat="42.34862" lon="0.23024">
        <ele>840.6</ele>
        <time>2018-05-06T11:11:28Z</time>
      </trkpt>
      <trkpt lat="42.3486" lon="0.23028">
        <ele>839.9</ele>
        <time>2018-05-06T11:11:29Z</time>
      </trkpt>
      <trkpt lat="42.34849" lon="0.2305">
        <ele>840.9</ele>
        <time>2018-05-06T11:11:35Z</time>
      </trkpt>
      <trkpt lat="42.34836" lon="0.2307">
        <ele>841</ele>
        <time>2018-05-06T11:11:40Z</time>
      </trkpt>
      <trkpt lat="42.34819" lon="0.23085">
        <ele>840.6</ele>
        <time>2018-05-06T11:11:45Z</time>
      </trkpt>
      <trkpt lat="42.348" lon="0.2309">
        <ele>837.3</ele>
        <time>2018-05-06T11:11:52Z</time>
      </trkpt>
      <trkpt lat="42.34784" lon="0.23105">
        <ele>837</ele>
        <time>2018-05-06T11:12:00Z</time>
      </trkpt>
      <trkpt lat="42.34771" lon="0.23122">
        <ele>837.6</ele>
        <time>2018-05-06T11:12:07Z</time>
      </trkpt>
      <trkpt lat="42.34762" lon="0.23145">
        <ele>840.8</ele>
        <time>2018-05-06T11:12:16Z</time>
      </trkpt>
      <trkpt lat="42.34761" lon="0.23171">
        <ele>844.8</ele>
        <time>2018-05-06T11:12:26Z</time>
      </trkpt>
      <trkpt lat="42.34752" lon="0.23193">
        <ele>845.9</ele>
        <time>2018-05-06T11:12:38Z</time>
      </trkpt>
      <trkpt lat="42.34734" lon="0.23199">
        <ele>842.1</ele>
        <time>2018-05-06T11:12:45Z</time>
      </trkpt>
      <trkpt lat="42.34715" lon="0.23205">
        <ele>838.6</ele>
        <time>2018-05-06T11:12:51Z</time>
      </trkpt>
      <trkpt lat="42.34699" lon="0.23216">
        <ele>837.1</ele>
        <time>2018-05-06T11:13:04Z</time>
      </trkpt>
      <trkpt lat="42.34684" lon="0.2323">
        <ele>835.8</ele>
        <time>2018-05-06T11:15:48Z</time>
      </trkpt>
      <trkpt lat="42.34677" lon="0.23254">
        <ele>836.3</ele>
        <time>2018-05-06T11:16:06Z</time>
      </trkpt>
      <trkpt lat="42.34683" lon="0.2328">
        <ele>839.4</ele>
        <time>2018-05-06T11:16:15Z</time>
      </trkpt>
      <trkpt lat="42.34685" lon="0.23285">
        <ele>840.4</ele>
        <time>2018-05-06T11:16:17Z</time>
      </trkpt>
      <trkpt lat="42.34675" lon="0.23304">
        <ele>840.2</ele>
        <time>2018-05-06T11:16:28Z</time>
      </trkpt>
      <trkpt lat="42.34685" lon="0.23314">
        <ele>843.2</ele>
        <time>2018-05-06T11:17:14Z</time>
      </trkpt>
      <trkpt lat="42.34699" lon="0.23326">
        <ele>848.1</ele>
        <time>2018-05-06T11:17:43Z</time>
      </trkpt>
      <trkpt lat="42.347" lon="0.2335">
        <ele>851.7</ele>
        <time>2018-05-06T11:18:15Z</time>
      </trkpt>
      <trkpt lat="42.34714" lon="0.23366">
        <ele>858.7</ele>
        <time>2018-05-06T11:18:51Z</time>
      </trkpt>
      <trkpt lat="42.34722" lon="0.23388">
        <ele>864.9</ele>
        <time>2018-05-06T11:19:09Z</time>
      </trkpt>
      <trkpt lat="42.34724" lon="0.23413">
        <ele>871.1</ele>
        <time>2018-05-06T11:19:30Z</time>
      </trkpt>
      <trkpt lat="42.34726" lon="0.23437">
        <ele>876.9</ele>
        <time>2018-05-06T11:19:44Z</time>
      </trkpt>
      <trkpt lat="42.34728" lon="0.23462">
        <ele>880.9</ele>
        <time>2018-05-06T11:19:57Z</time>
      </trkpt>
      <trkpt lat="42.34732" lon="0.23487">
        <ele>885.5</ele>
        <time>2018-05-06T11:20:12Z</time>
      </trkpt>
      <trkpt lat="42.34736" lon="0.23504">
        <ele>890.9</ele>
        <time>2018-05-06T11:20:21Z</time>
      </trkpt>
      <trkpt lat="42.34732" lon="0.23529">
        <ele>892.4</ele>
        <time>2018-05-06T11:20:42Z</time>
      </trkpt>
      <trkpt lat="42.34728" lon="0.23543">
        <ele>890.8</ele>
        <time>2018-05-06T11:20:58Z</time>
      </trkpt>
      <trkpt lat="42.34724" lon="0.23568">
        <ele>892.2</ele>
        <time>2018-05-06T11:21:12Z</time>
      </trkpt>
      <trkpt lat="42.34723" lon="0.23572">
        <ele>892.7</ele>
        <time>2018-05-06T11:21:14Z</time>
      </trkpt>
      <trkpt lat="42.34716" lon="0.23595">
        <ele>892.1</ele>
        <time>2018-05-06T11:21:28Z</time>
      </trkpt>
      <trkpt lat="42.3471" lon="0.23619">
        <ele>891.5</ele>
        <time>2018-05-06T11:21:41Z</time>
      </trkpt>
      <trkpt lat="42.34701" lon="0.23641">
        <ele>889.6</ele>
        <time>2018-05-06T11:22:00Z</time>
      </trkpt>
      <trkpt lat="42.3469" lon="0.23662">
        <ele>885.9</ele>
        <time>2018-05-06T11:22:31Z</time>
      </trkpt>
      <trkpt lat="42.34688" lon="0.23687">
        <ele>887.2</ele>
        <time>2018-05-06T11:22:42Z</time>
      </trkpt>
      <trkpt lat="42.34679" lon="0.23708">
        <ele>885</ele>
        <time>2018-05-06T11:22:55Z</time>
      </trkpt>
      <trkpt lat="42.34673" lon="0.23733">
        <ele>884.2</ele>
        <time>2018-05-06T11:23:25Z</time>
      </trkpt>
      <trkpt lat="42.34678" lon="0.23755">
        <ele>886</ele>
        <time>2018-05-06T11:23:50Z</time>
      </trkpt>
      <trkpt lat="42.34688" lon="0.23736">
        <ele>888.6</ele>
        <time>2018-05-06T11:24:18Z</time>
      </trkpt>
      <trkpt lat="42.34704" lon="0.23724">
        <ele>892.9</ele>
        <time>2018-05-06T11:24:49Z</time>
      </trkpt>
      <trkpt lat="42.34722" lon="0.23717">
        <ele>897.6</ele>
        <time>2018-05-06T11:25:19Z</time>
      </trkpt>
      <trkpt lat="42.34737" lon="0.2372">
        <ele>902.2</ele>
        <time>2018-05-06T11:26:35Z</time>
      </trkpt>
      <trkpt lat="42.34756" lon="0.23723">
        <ele>907.5</ele>
        <time>2018-05-06T11:26:44Z</time>
      </trkpt>
      <trkpt lat="42.34775" lon="0.23727">
        <ele>911</ele>
        <time>2018-05-06T11:26:51Z</time>
      </trkpt>
      <trkpt lat="42.3478" lon="0.23729">
        <ele>911.6</ele>
        <time>2018-05-06T11:26:53Z</time>
      </trkpt>
      <trkpt lat="42.34799" lon="0.23731">
        <ele>914.6</ele>
        <time>2018-05-06T11:27:00Z</time>
      </trkpt>
      <trkpt lat="42.34819" lon="0.23734">
        <ele>916.5</ele>
        <time>2018-05-06T11:27:07Z</time>
      </trkpt>
      <trkpt lat="42.34838" lon="0.23728">
        <ele>919.7</ele>
        <time>2018-05-06T11:27:14Z</time>
      </trkpt>
      <trkpt lat="42.3484" lon="0.23726">
        <ele>919.8</ele>
        <time>2018-05-06T11:27:15Z</time>
      </trkpt>
      <trkpt lat="42.34859" lon="0.23721">
        <ele>920.7</ele>
        <time>2018-05-06T11:27:22Z</time>
      </trkpt>
      <trkpt lat="42.34878" lon="0.23724">
        <ele>918.3</ele>
        <time>2018-05-06T11:27:28Z</time>
      </trkpt>
      <trkpt lat="42.34883" lon="0.23728">
        <ele>917.7</ele>
        <time>2018-05-06T11:27:30Z</time>
      </trkpt>
      <trkpt lat="42.34901" lon="0.23727">
        <ele>913.6</ele>
        <time>2018-05-06T11:27:35Z</time>
      </trkpt>
      <trkpt lat="42.3492" lon="0.23726">
        <ele>907.3</ele>
        <time>2018-05-06T11:27:42Z</time>
      </trkpt>
      <trkpt lat="42.34926" lon="0.23726">
        <ele>905</ele>
        <time>2018-05-06T11:27:44Z</time>
      </trkpt>
      <trkpt lat="42.3493" lon="0.23726">
        <ele>904</ele>
        <time>2018-05-06T11:27:46Z</time>
      </trkpt>
      <trkpt lat="42.34948" lon="0.23717">
        <ele>899.2</ele>
        <time>2018-05-06T11:27:52Z</time>
      </trkpt>
      <trkpt lat="42.34966" lon="0.23709">
        <ele>896</ele>
        <time>2018-05-06T11:28:03Z</time>
      </trkpt>
      <trkpt lat="42.3498" lon="0.23692">
        <ele>896.7</ele>
        <time>2018-05-06T11:28:22Z</time>
      </trkpt>
      <trkpt lat="42.34984" lon="0.23684">
        <ele>899.6</ele>
        <time>2018-05-06T11:28:25Z</time>
      </trkpt>
      <trkpt lat="42.34985" lon="0.23673">
        <ele>903.6</ele>
        <time>2018-05-06T11:28:30Z</time>
      </trkpt>
      <trkpt lat="42.34989" lon="0.23667">
        <ele>906.9</ele>
        <time>2018-05-06T11:28:33Z</time>
      </trkpt>
      <trkpt lat="42.35005" lon="0.23653">
        <ele>909.6</ele>
        <time>2018-05-06T11:28:42Z</time>
      </trkpt>
      <trkpt lat="42.35024" lon="0.23645">
        <ele>911.8</ele>
        <time>2018-05-06T11:28:49Z</time>
      </trkpt>
      <trkpt lat="42.35044" lon="0.2364">
        <ele>912.5</ele>
        <time>2018-05-06T11:28:56Z</time>
      </trkpt>
      <trkpt lat="42.35062" lon="0.23644">
        <ele>909.9</ele>
        <time>2018-05-06T11:29:03Z</time>
      </trkpt>
      <trkpt lat="42.35081" lon="0.23645">
        <ele>910.7</ele>
        <time>2018-05-06T11:29:10Z</time>
      </trkpt>
      <trkpt lat="42.35098" lon="0.23661">
        <ele>905.6</ele>
        <time>2018-05-06T11:29:17Z</time>
      </trkpt>
      <trkpt lat="42.35112" lon="0.23677">
        <ele>900.2</ele>
        <time>2018-05-06T11:29:25Z</time>
      </trkpt>
      <trkpt lat="42.3513" lon="0.23691">
        <ele>897.3</ele>
        <time>2018-05-06T11:29:32Z</time>
      </trkpt>
      <trkpt lat="42.35148" lon="0.23704">
        <ele>894.4</ele>
        <time>2018-05-06T11:29:38Z</time>
      </trkpt>
      <trkpt lat="42.35163" lon="0.23719">
        <ele>891</ele>
        <time>2018-05-06T11:29:44Z</time>
      </trkpt>
      <trkpt lat="42.35182" lon="0.23729">
        <ele>886.5</ele>
        <time>2018-05-06T11:29:51Z</time>
      </trkpt>
      <trkpt lat="42.35187" lon="0.23732">
        <ele>886.5</ele>
        <time>2018-05-06T11:29:53Z</time>
      </trkpt>
      <trkpt lat="42.35195" lon="0.23738">
        <ele>883.4</ele>
        <time>2018-05-06T11:29:57Z</time>
      </trkpt>
      <trkpt lat="42.35198" lon="0.2374">
        <ele>883.4</ele>
        <time>2018-05-06T11:29:59Z</time>
      </trkpt>
      <trkpt lat="42.35205" lon="0.23745">
        <ele>881.5</ele>
        <time>2018-05-06T11:30:03Z</time>
      </trkpt>
      <trkpt lat="42.35212" lon="0.2375">
        <ele>878.5</ele>
        <time>2018-05-06T11:30:07Z</time>
      </trkpt>
      <trkpt lat="42.35215" lon="0.2375">
        <ele>878.2</ele>
        <time>2018-05-06T11:30:09Z</time>
      </trkpt>
      <trkpt lat="42.35219" lon="0.23751">
        <ele>877.9</ele>
        <time>2018-05-06T11:30:11Z</time>
      </trkpt>
      <trkpt lat="42.35229" lon="0.23761">
        <ele>874</ele>
        <time>2018-05-06T11:30:18Z</time>
      </trkpt>
      <trkpt lat="42.35244" lon="0.23764">
        <ele>869.8</ele>
        <time>2018-05-06T11:30:26Z</time>
      </trkpt>
      <trkpt lat="42.35255" lon="0.23765">
        <ele>867.5</ele>
        <time>2018-05-06T11:30:30Z</time>
      </trkpt>
      <trkpt lat="42.35266" lon="0.2376">
        <ele>865</ele>
        <time>2018-05-06T11:30:37Z</time>
      </trkpt>
      <trkpt lat="42.35284" lon="0.23744">
        <ele>862.9</ele>
        <time>2018-05-06T11:30:50Z</time>
      </trkpt>
      <trkpt lat="42.35286" lon="0.23742">
        <ele>863.1</ele>
        <time>2018-05-06T11:30:51Z</time>
      </trkpt>
      <trkpt lat="42.35298" lon="0.23732">
        <ele>862.1</ele>
        <time>2018-05-06T11:30:56Z</time>
      </trkpt>
      <trkpt lat="42.35313" lon="0.23729">
        <ele>859.7</ele>
        <time>2018-05-06T11:31:01Z</time>
      </trkpt>
      <trkpt lat="42.35331" lon="0.23722">
        <ele>859.2</ele>
        <time>2018-05-06T11:31:07Z</time>
      </trkpt>
      <trkpt lat="42.3535" lon="0.23722">
        <ele>857.1</ele>
        <time>2018-05-06T11:31:14Z</time>
      </trkpt>
      <trkpt lat="42.35369" lon="0.23725">
        <ele>852.6</ele>
        <time>2018-05-06T11:31:24Z</time>
      </trkpt>
      <trkpt lat="42.3538" lon="0.23726">
        <ele>850.8</ele>
        <time>2018-05-06T11:31:30Z</time>
      </trkpt>
      <trkpt lat="42.35398" lon="0.2372">
        <ele>848.9</ele>
        <time>2018-05-06T11:31:38Z</time>
      </trkpt>
      <trkpt lat="42.35413" lon="0.23721">
        <ele>846.1</ele>
        <time>2018-05-06T11:31:45Z</time>
      </trkpt>
      <trkpt lat="42.35424" lon="0.23702">
        <ele>851.2</ele>
        <time>2018-05-06T11:32:01Z</time>
      </trkpt>
      <trkpt lat="42.35443" lon="0.23709">
        <ele>846.7</ele>
        <time>2018-05-06T11:32:24Z</time>
      </trkpt>
      <trkpt lat="42.35462" lon="0.23714">
        <ele>843.3</ele>
        <time>2018-05-06T11:32:33Z</time>
      </trkpt>
      <trkpt lat="42.35478" lon="0.23732">
        <ele>834.4</ele>
        <time>2018-05-06T11:32:41Z</time>
      </trkpt>
      <trkpt lat="42.35492" lon="0.23752">
        <ele>825.6</ele>
        <time>2018-05-06T11:32:48Z</time>
      </trkpt>
      <trkpt lat="42.35505" lon="0.23775">
        <ele>817.1</ele>
        <time>2018-05-06T11:32:54Z</time>
      </trkpt>
      <trkpt lat="42.3552" lon="0.2379">
        <ele>811.2</ele>
        <time>2018-05-06T11:33:00Z</time>
      </trkpt>
      <trkpt lat="42.35528" lon="0.23799">
        <ele>808.8</ele>
        <time>2018-05-06T11:33:06Z</time>
      </trkpt>
      <trkpt lat="42.35547" lon="0.23799">
        <ele>810</ele>
        <time>2018-05-06T11:33:15Z</time>
      </trkpt>
      <trkpt lat="42.3555" lon="0.23799">
        <ele>810.2</ele>
        <time>2018-05-06T11:33:16Z</time>
      </trkpt>
      <trkpt lat="42.35564" lon="0.23799">
        <ele>810.6</ele>
        <time>2018-05-06T11:33:32Z</time>
      </trkpt>
      <trkpt lat="42.35574" lon="0.23802">
        <ele>809</ele>
        <time>2018-05-06T11:33:37Z</time>
      </trkpt>
      <trkpt lat="42.35576" lon="0.23803">
        <ele>809</ele>
        <time>2018-05-06T11:33:38Z</time>
      </trkpt>
      <trkpt lat="42.35592" lon="0.23816">
        <ele>803.3</ele>
        <time>2018-05-06T11:33:47Z</time>
      </trkpt>
      <trkpt lat="42.35594" lon="0.23817">
        <ele>803.4</ele>
        <time>2018-05-06T11:33:48Z</time>
      </trkpt>
      <trkpt lat="42.35612" lon="0.23828">
        <ele>797.5</ele>
        <time>2018-05-06T11:33:56Z</time>
      </trkpt>
      <trkpt lat="42.35619" lon="0.23832">
        <ele>795.7</ele>
        <time>2018-05-06T11:33:59Z</time>
      </trkpt>
      <trkpt lat="42.35638" lon="0.23826">
        <ele>797.9</ele>
        <time>2018-05-06T11:34:16Z</time>
      </trkpt>
      <trkpt lat="42.35654" lon="0.2383">
        <ele>795.7</ele>
        <time>2018-05-06T11:34:54Z</time>
      </trkpt>
      <trkpt lat="42.35658" lon="0.23833">
        <ele>794.3</ele>
        <time>2018-05-06T11:34:57Z</time>
      </trkpt>
      <trkpt lat="42.35675" lon="0.23827">
        <ele>794.9</ele>
        <time>2018-05-06T11:35:36Z</time>
      </trkpt>
      <trkpt lat="42.3568" lon="0.23825">
        <ele>796.2</ele>
        <time>2018-05-06T11:35:40Z</time>
      </trkpt>
      <trkpt lat="42.35697" lon="0.23829">
        <ele>794.9</ele>
        <time>2018-05-06T11:35:52Z</time>
      </trkpt>
      <trkpt lat="42.35698" lon="0.2383">
        <ele>795</ele>
        <time>2018-05-06T11:35:53Z</time>
      </trkpt>
      <trkpt lat="42.35711" lon="0.23848">
        <ele>789</ele>
        <time>2018-05-06T11:36:07Z</time>
      </trkpt>
      <trkpt lat="42.35716" lon="0.23852">
        <ele>789.3</ele>
        <time>2018-05-06T11:36:10Z</time>
      </trkpt>
      <trkpt lat="42.3573" lon="0.23862">
        <ele>785.9</ele>
        <time>2018-05-06T11:36:34Z</time>
      </trkpt>
      <trkpt lat="42.35743" lon="0.2388">
        <ele>781.2</ele>
        <time>2018-05-06T11:36:49Z</time>
      </trkpt>
      <trkpt lat="42.35752" lon="0.23906">
        <ele>777.3</ele>
        <time>2018-05-06T11:36:58Z</time>
      </trkpt>
      <trkpt lat="42.35768" lon="0.23923">
        <ele>776.9</ele>
        <time>2018-05-06T11:37:04Z</time>
      </trkpt>
      <trkpt lat="42.35769" lon="0.23932">
        <ele>776.1</ele>
        <time>2018-05-06T11:37:06Z</time>
      </trkpt>
      <trkpt lat="42.35751" lon="0.23946">
        <ele>773.3</ele>
        <time>2018-05-06T11:37:11Z</time>
      </trkpt>
      <trkpt lat="42.35744" lon="0.23948">
        <ele>772.4</ele>
        <time>2018-05-06T11:37:13Z</time>
      </trkpt>
      <trkpt lat="42.35726" lon="0.23953">
        <ele>771.2</ele>
        <time>2018-05-06T11:37:50Z</time>
      </trkpt>
      <trkpt lat="42.3571" lon="0.23966">
        <ele>770</ele>
        <time>2018-05-06T11:39:05Z</time>
      </trkpt>
      <trkpt lat="42.35692" lon="0.23975">
        <ele>768</ele>
        <time>2018-05-06T11:39:10Z</time>
      </trkpt>
      <trkpt lat="42.35671" lon="0.23987">
        <ele>766</ele>
        <time>2018-05-06T11:39:15Z</time>
      </trkpt>
      <trkpt lat="42.35654" lon="0.23997">
        <ele>764.5</ele>
        <time>2018-05-06T11:39:19Z</time>
      </trkpt>
      <trkpt lat="42.35636" lon="0.24002">
        <ele>763.5</ele>
        <time>2018-05-06T11:39:23Z</time>
      </trkpt>
      <trkpt lat="42.35617" lon="0.24005">
        <ele>762.8</ele>
        <time>2018-05-06T11:39:27Z</time>
      </trkpt>
      <trkpt lat="42.356" lon="0.24005">
        <ele>761.7</ele>
        <time>2018-05-06T11:39:32Z</time>
      </trkpt>
      <trkpt lat="42.35582" lon="0.23998">
        <ele>761</ele>
        <time>2018-05-06T11:39:38Z</time>
      </trkpt>
      <trkpt lat="42.35568" lon="0.2398">
        <ele>760.5</ele>
        <time>2018-05-06T11:39:45Z</time>
      </trkpt>
      <trkpt lat="42.35552" lon="0.23965">
        <ele>760.3</ele>
        <time>2018-05-06T11:39:51Z</time>
      </trkpt>
      <trkpt lat="42.3555" lon="0.23963">
        <ele>760.3</ele>
        <time>2018-05-06T11:40:21Z</time>
      </trkpt>
      <trkpt lat="42.35564" lon="0.23979">
        <ele>760.6</ele>
        <time>2018-05-06T11:40:30Z</time>
      </trkpt>
      <trkpt lat="42.35579" lon="0.23996">
        <ele>761.5</ele>
        <time>2018-05-06T11:40:48Z</time>
      </trkpt>
      <trkpt lat="42.35569" lon="0.23996">
        <ele>762.2</ele>
        <time>2018-05-06T11:41:47Z</time>
      </trkpt>
      <trkpt lat="42.35553" lon="0.23981">
        <ele>763.6</ele>
        <time>2018-05-06T11:41:52Z</time>
      </trkpt>
      <trkpt lat="42.35537" lon="0.2397">
        <ele>765.4</ele>
        <time>2018-05-06T11:41:57Z</time>
      </trkpt>
      <trkpt lat="42.35518" lon="0.23963">
        <ele>767</ele>
        <time>2018-05-06T11:42:03Z</time>
      </trkpt>
      <trkpt lat="42.355" lon="0.23976">
        <ele>767</ele>
        <time>2018-05-06T11:42:11Z</time>
      </trkpt>
      <trkpt lat="42.35481" lon="0.23981">
        <ele>765.9</ele>
        <time>2018-05-06T11:42:17Z</time>
      </trkpt>
      <trkpt lat="42.35462" lon="0.23974">
        <ele>769.5</ele>
        <time>2018-05-06T11:42:24Z</time>
      </trkpt>
      <trkpt lat="42.35459" lon="0.23975">
        <ele>770.3</ele>
        <time>2018-05-06T11:42:25Z</time>
      </trkpt>
      <trkpt lat="42.35455" lon="0.23997">
        <ele>770.7</ele>
        <time>2018-05-06T11:42:31Z</time>
      </trkpt>
      <trkpt lat="42.35457" lon="0.23999">
        <ele>769.5</ele>
        <time>2018-05-06T11:42:32Z</time>
      </trkpt>
      <trkpt lat="42.35463" lon="0.24024">
        <ele>763</ele>
        <time>2018-05-06T11:42:39Z</time>
      </trkpt>
      <trkpt lat="42.35462" lon="0.24035">
        <ele>759.7</ele>
        <time>2018-05-06T11:42:42Z</time>
      </trkpt>
      <trkpt lat="42.35453" lon="0.24044">
        <ele>756.1</ele>
        <time>2018-05-06T11:43:49Z</time>
      </trkpt>
      <trkpt lat="42.35434" lon="0.24054">
        <ele>755.7</ele>
        <time>2018-05-06T11:43:59Z</time>
      </trkpt>
      <trkpt lat="42.35418" lon="0.24068">
        <ele>757.5</ele>
        <time>2018-05-06T11:44:06Z</time>
      </trkpt>
      <trkpt lat="42.354" lon="0.24074">
        <ele>757.6</ele>
        <time>2018-05-06T11:44:12Z</time>
      </trkpt>
      <trkpt lat="42.3538" lon="0.24083">
        <ele>761</ele>
        <time>2018-05-06T11:44:18Z</time>
      </trkpt>
      <trkpt lat="42.35376" lon="0.24086">
        <ele>761.8</ele>
        <time>2018-05-06T11:44:19Z</time>
      </trkpt>
      <trkpt lat="42.3536" lon="0.24102">
        <ele>761.5</ele>
        <time>2018-05-06T11:44:24Z</time>
      </trkpt>
      <trkpt lat="42.35341" lon="0.24111">
        <ele>759.9</ele>
        <time>2018-05-06T11:44:31Z</time>
      </trkpt>
      <trkpt lat="42.35327" lon="0.24129">
        <ele>757.9</ele>
        <time>2018-05-06T11:44:42Z</time>
      </trkpt>
      <trkpt lat="42.35317" lon="0.24143">
        <ele>753.8</ele>
        <time>2018-05-06T11:44:47Z</time>
      </trkpt>
      <trkpt lat="42.35304" lon="0.24154">
        <ele>750</ele>
        <time>2018-05-06T11:44:53Z</time>
      </trkpt>
      <trkpt lat="42.35294" lon="0.24161">
        <ele>747</ele>
        <time>2018-05-06T11:44:56Z</time>
      </trkpt>
      <trkpt lat="42.35273" lon="0.24165">
        <ele>744.5</ele>
        <time>2018-05-06T11:45:01Z</time>
      </trkpt>
      <trkpt lat="42.35264" lon="0.24163">
        <ele>743.2</ele>
        <time>2018-05-06T11:45:03Z</time>
      </trkpt>
      <trkpt lat="42.35247" lon="0.24154">
        <ele>743</ele>
        <time>2018-05-06T11:45:08Z</time>
      </trkpt>
      <trkpt lat="42.35236" lon="0.24161">
        <ele>746.2</ele>
        <time>2018-05-06T11:45:54Z</time>
      </trkpt>
      <trkpt lat="42.35235" lon="0.24164">
        <ele>746.7</ele>
        <time>2018-05-06T11:45:55Z</time>
      </trkpt>
      <trkpt lat="42.35229" lon="0.24177">
        <ele>745.3</ele>
        <time>2018-05-06T11:46:00Z</time>
      </trkpt>
      <trkpt lat="42.35213" lon="0.24189">
        <ele>741.4</ele>
        <time>2018-05-06T11:46:12Z</time>
      </trkpt>
      <trkpt lat="42.35199" lon="0.24203">
        <ele>741.2</ele>
        <time>2018-05-06T11:46:34Z</time>
      </trkpt>
      <trkpt lat="42.35183" lon="0.24217">
        <ele>743.1</ele>
        <time>2018-05-06T11:46:43Z</time>
      </trkpt>
      <trkpt lat="42.35165" lon="0.24229">
        <ele>746.7</ele>
        <time>2018-05-06T11:46:52Z</time>
      </trkpt>
      <trkpt lat="42.35146" lon="0.24236">
        <ele>751</ele>
        <time>2018-05-06T11:47:02Z</time>
      </trkpt>
      <trkpt lat="42.3513" lon="0.24247">
        <ele>755.4</ele>
        <time>2018-05-06T11:47:21Z</time>
      </trkpt>
      <trkpt lat="42.35115" lon="0.24263">
        <ele>761.5</ele>
        <time>2018-05-06T11:47:39Z</time>
      </trkpt>
      <trkpt lat="42.35108" lon="0.24268">
        <ele>763.8</ele>
        <time>2018-05-06T11:47:44Z</time>
      </trkpt>
      <trkpt lat="42.35087" lon="0.24275">
        <ele>769.9</ele>
        <time>2018-05-06T11:47:52Z</time>
      </trkpt>
      <trkpt lat="42.35067" lon="0.24279">
        <ele>772.4</ele>
        <time>2018-05-06T11:47:57Z</time>
      </trkpt>
      <trkpt lat="42.3506" lon="0.24281">
        <ele>772.6</ele>
        <time>2018-05-06T11:48:00Z</time>
      </trkpt>
      <trkpt lat="42.3504" lon="0.2429">
        <ele>772.1</ele>
        <time>2018-05-06T11:48:07Z</time>
      </trkpt>
      <trkpt lat="42.35031" lon="0.24293">
        <ele>770.5</ele>
        <time>2018-05-06T11:48:10Z</time>
      </trkpt>
      <trkpt lat="42.35013" lon="0.24299">
        <ele>765.7</ele>
        <time>2018-05-06T11:48:17Z</time>
      </trkpt>
      <trkpt lat="42.35007" lon="0.24294">
        <ele>763.9</ele>
        <time>2018-05-06T11:48:20Z</time>
      </trkpt>
      <trkpt lat="42.34993" lon="0.24315">
        <ele>762.5</ele>
        <time>2018-05-06T11:50:03Z</time>
      </trkpt>
      <trkpt lat="42.34985" lon="0.24328">
        <ele>756.7</ele>
        <time>2018-05-06T11:50:07Z</time>
      </trkpt>
      <trkpt lat="42.34968" lon="0.24341">
        <ele>750.7</ele>
        <time>2018-05-06T11:50:14Z</time>
      </trkpt>
      <trkpt lat="42.34949" lon="0.24351">
        <ele>745.4</ele>
        <time>2018-05-06T11:50:23Z</time>
      </trkpt>
      <trkpt lat="42.34931" lon="0.24358">
        <ele>744</ele>
        <time>2018-05-06T11:50:32Z</time>
      </trkpt>
      <trkpt lat="42.34911" lon="0.24367">
        <ele>741.7</ele>
        <time>2018-05-06T11:50:41Z</time>
      </trkpt>
      <trkpt lat="42.34901" lon="0.2437">
        <ele>740.6</ele>
        <time>2018-05-06T11:50:50Z</time>
      </trkpt>
      <trkpt lat="42.34884" lon="0.2438">
        <ele>739.1</ele>
        <time>2018-05-06T11:50:56Z</time>
      </trkpt>
      <trkpt lat="42.34868" lon="0.24392">
        <ele>736.2</ele>
        <time>2018-05-06T11:51:03Z</time>
      </trkpt>
      <trkpt lat="42.3485" lon="0.244">
        <ele>735.7</ele>
        <time>2018-05-06T11:51:10Z</time>
      </trkpt>
      <trkpt lat="42.34831" lon="0.24404">
        <ele>736.2</ele>
        <time>2018-05-06T11:51:16Z</time>
      </trkpt>
      <trkpt lat="42.34815" lon="0.24415">
        <ele>733.1</ele>
        <time>2018-05-06T11:51:22Z</time>
      </trkpt>
      <trkpt lat="42.34795" lon="0.24414">
        <ele>734.6</ele>
        <time>2018-05-06T11:51:28Z</time>
      </trkpt>
      <trkpt lat="42.34776" lon="0.2441">
        <ele>734</ele>
        <time>2018-05-06T11:51:33Z</time>
      </trkpt>
      <trkpt lat="42.34755" lon="0.24409">
        <ele>732.8</ele>
        <time>2018-05-06T11:51:39Z</time>
      </trkpt>
      <trkpt lat="42.3475" lon="0.24411">
        <ele>730.5</ele>
        <time>2018-05-06T11:51:40Z</time>
      </trkpt>
      <trkpt lat="42.34733" lon="0.24415">
        <ele>727</ele>
        <time>2018-05-06T11:51:44Z</time>
      </trkpt>
      <trkpt lat="42.34713" lon="0.24421">
        <ele>723.2</ele>
        <time>2018-05-06T11:51:49Z</time>
      </trkpt>
      <trkpt lat="42.34701" lon="0.24421">
        <ele>721.7</ele>
        <time>2018-05-06T11:51:54Z</time>
      </trkpt>
      <trkpt lat="42.34694" lon="0.24408">
        <ele>722.6</ele>
        <time>2018-05-06T11:52:01Z</time>
      </trkpt>
      <trkpt lat="42.34689" lon="0.24407">
        <ele>721.4</ele>
        <time>2018-05-06T11:52:05Z</time>
      </trkpt>
      <trkpt lat="42.34685" lon="0.24393">
        <ele>723.1</ele>
        <time>2018-05-06T11:52:11Z</time>
      </trkpt>
      <trkpt lat="42.34675" lon="0.24386">
        <ele>723.6</ele>
        <time>2018-05-06T11:52:19Z</time>
      </trkpt>
      <trkpt lat="42.34659" lon="0.24394">
        <ele>720.4</ele>
        <time>2018-05-06T11:52:33Z</time>
      </trkpt>
      <trkpt lat="42.34654" lon="0.24388">
        <ele>721.3</ele>
        <time>2018-05-06T11:52:37Z</time>
      </trkpt>
      <trkpt lat="42.34635" lon="0.24381">
        <ele>723.7</ele>
        <time>2018-05-06T11:52:47Z</time>
      </trkpt>
      <trkpt lat="42.34617" lon="0.24373">
        <ele>725.5</ele>
        <time>2018-05-06T11:52:56Z</time>
      </trkpt>
      <trkpt lat="42.34604" lon="0.24362">
        <ele>726.4</ele>
        <time>2018-05-06T11:53:07Z</time>
      </trkpt>
      <trkpt lat="42.34585" lon="0.24358">
        <ele>727</ele>
        <time>2018-05-06T11:53:16Z</time>
      </trkpt>
      <trkpt lat="42.34564" lon="0.24358">
        <ele>727.3</ele>
        <time>2018-05-06T11:53:21Z</time>
      </trkpt>
      <trkpt lat="42.34544" lon="0.24357">
        <ele>727.7</ele>
        <time>2018-05-06T11:53:26Z</time>
      </trkpt>
      <trkpt lat="42.34526" lon="0.2436">
        <ele>728.9</ele>
        <time>2018-05-06T11:53:33Z</time>
      </trkpt>
      <trkpt lat="42.34507" lon="0.24373">
        <ele>727.4</ele>
        <time>2018-05-06T11:53:40Z</time>
      </trkpt>
      <trkpt lat="42.34488" lon="0.24381">
        <ele>726.4</ele>
        <time>2018-05-06T11:53:57Z</time>
      </trkpt>
      <trkpt lat="42.34478" lon="0.24381">
        <ele>726.3</ele>
        <time>2018-05-06T11:54:01Z</time>
      </trkpt>
      <trkpt lat="42.34461" lon="0.24379">
        <ele>726.7</ele>
        <time>2018-05-06T11:54:22Z</time>
      </trkpt>
      <trkpt lat="42.34449" lon="0.24377">
        <ele>726.5</ele>
        <time>2018-05-06T11:54:38Z</time>
      </trkpt>
      <trkpt lat="42.34433" lon="0.24364">
        <ele>724.9</ele>
        <time>2018-05-06T11:54:58Z</time>
      </trkpt>
      <trkpt lat="42.34419" lon="0.24349">
        <ele>722.5</ele>
        <time>2018-05-06T11:55:04Z</time>
      </trkpt>
      <trkpt lat="42.34401" lon="0.24345">
        <ele>721.4</ele>
        <time>2018-05-06T11:55:10Z</time>
      </trkpt>
      <trkpt lat="42.34382" lon="0.24351">
        <ele>721.1</ele>
        <time>2018-05-06T11:55:15Z</time>
      </trkpt>
      <trkpt lat="42.34374" lon="0.24349">
        <ele>721</ele>
        <time>2018-05-06T11:55:18Z</time>
      </trkpt>
      <trkpt lat="42.34362" lon="0.24331">
        <ele>720.8</ele>
        <time>2018-05-06T11:55:24Z</time>
      </trkpt>
      <trkpt lat="42.3436" lon="0.24329">
        <ele>720.7</ele>
        <time>2018-05-06T11:55:25Z</time>
      </trkpt>
      <trkpt lat="42.34343" lon="0.24321">
        <ele>719.9</ele>
        <time>2018-05-06T11:55:31Z</time>
      </trkpt>
      <trkpt lat="42.34323" lon="0.24315">
        <ele>718.3</ele>
        <time>2018-05-06T11:55:38Z</time>
      </trkpt>
      <trkpt lat="42.34304" lon="0.2431">
        <ele>717.7</ele>
        <time>2018-05-06T11:55:43Z</time>
      </trkpt>
      <trkpt lat="42.34287" lon="0.24314">
        <ele>717.6</ele>
        <time>2018-05-06T11:55:48Z</time>
      </trkpt>
      <trkpt lat="42.34284" lon="0.24315">
        <ele>717.6</ele>
        <time>2018-05-06T11:55:49Z</time>
      </trkpt>
      <trkpt lat="42.34276" lon="0.24311">
        <ele>717.5</ele>
        <time>2018-05-06T11:55:53Z</time>
      </trkpt>
      <trkpt lat="42.34259" lon="0.24298">
        <ele>717.2</ele>
        <time>2018-05-06T11:55:59Z</time>
      </trkpt>
      <trkpt lat="42.34241" lon="0.24289">
        <ele>716.5</ele>
        <time>2018-05-06T11:56:05Z</time>
      </trkpt>
      <trkpt lat="42.34224" lon="0.24275">
        <ele>713.8</ele>
        <time>2018-05-06T11:56:12Z</time>
      </trkpt>
      <trkpt lat="42.34209" lon="0.24261">
        <ele>710.6</ele>
        <time>2018-05-06T11:56:18Z</time>
      </trkpt>
      <trkpt lat="42.34191" lon="0.24251">
        <ele>707.2</ele>
        <time>2018-05-06T11:56:25Z</time>
      </trkpt>
      <trkpt lat="42.34171" lon="0.24239">
        <ele>703</ele>
        <time>2018-05-06T11:56:31Z</time>
      </trkpt>
      <trkpt lat="42.34151" lon="0.24234">
        <ele>700.6</ele>
        <time>2018-05-06T11:56:36Z</time>
      </trkpt>
      <trkpt lat="42.34141" lon="0.24235">
        <ele>695.7</ele>
        <time>2018-05-06T11:56:39Z</time>
      </trkpt>
      <trkpt lat="42.34123" lon="0.24227">
        <ele>692.9</ele>
        <time>2018-05-06T11:57:10Z</time>
      </trkpt>
      <trkpt lat="42.34104" lon="0.24223">
        <ele>689.5</ele>
        <time>2018-05-06T11:57:17Z</time>
      </trkpt>
      <trkpt lat="42.34086" lon="0.24223">
        <ele>686.8</ele>
        <time>2018-05-06T11:57:22Z</time>
      </trkpt>
      <trkpt lat="42.34071" lon="0.24213">
        <ele>682.7</ele>
        <time>2018-05-06T11:57:30Z</time>
      </trkpt>
      <trkpt lat="42.34048" lon="0.24211">
        <ele>676.2</ele>
        <time>2018-05-06T11:58:28Z</time>
      </trkpt>
      <trkpt lat="42.34029" lon="0.24216">
        <ele>671.6</ele>
        <time>2018-05-06T11:58:35Z</time>
      </trkpt>
      <trkpt lat="42.34008" lon="0.24223">
        <ele>665.8</ele>
        <time>2018-05-06T11:58:42Z</time>
      </trkpt>
      <trkpt lat="42.34" lon="0.24232">
        <ele>663.7</ele>
        <time>2018-05-06T11:58:46Z</time>
      </trkpt>
      <trkpt lat="42.34001" lon="0.24241">
        <ele>661.2</ele>
        <time>2018-05-06T11:58:50Z</time>
      </trkpt>
      <trkpt lat="42.3399" lon="0.24243">
        <ele>657.8</ele>
        <time>2018-05-06T11:58:55Z</time>
      </trkpt>
      <trkpt lat="42.33972" lon="0.24234">
        <ele>654.4</ele>
        <time>2018-05-06T11:59:03Z</time>
      </trkpt>
      <trkpt lat="42.33964" lon="0.24228">
        <ele>652.4</ele>
        <time>2018-05-06T11:59:08Z</time>
      </trkpt>
      <trkpt lat="42.33948" lon="0.24227">
        <ele>647.5</ele>
        <time>2018-05-06T11:59:17Z</time>
      </trkpt>
      <trkpt lat="42.33944" lon="0.24212">
        <ele>644.1</ele>
        <time>2018-05-06T11:59:24Z</time>
      </trkpt>
      <trkpt lat="42.33937" lon="0.24203">
        <ele>642.4</ele>
        <time>2018-05-06T11:59:28Z</time>
      </trkpt>
      <trkpt lat="42.33918" lon="0.24204">
        <ele>638.4</ele>
        <time>2018-05-06T11:59:34Z</time>
      </trkpt>
      <trkpt lat="42.33906" lon="0.24205">
        <ele>635.9</ele>
        <time>2018-05-06T11:59:38Z</time>
      </trkpt>
      <trkpt lat="42.33887" lon="0.24194">
        <ele>629.5</ele>
        <time>2018-05-06T11:59:45Z</time>
      </trkpt>
      <trkpt lat="42.33882" lon="0.24189">
        <ele>628.9</ele>
        <time>2018-05-06T11:59:47Z</time>
      </trkpt>
      <trkpt lat="42.3386" lon="0.24194">
        <ele>624.6</ele>
        <time>2018-05-06T11:59:52Z</time>
      </trkpt>
      <trkpt lat="42.33842" lon="0.24199">
        <ele>620.7</ele>
        <time>2018-05-06T11:59:56Z</time>
      </trkpt>
      <trkpt lat="42.33821" lon="0.242">
        <ele>618.2</ele>
        <time>2018-05-06T12:00:01Z</time>
      </trkpt>
      <trkpt lat="42.33815" lon="0.24199">
        <ele>617.5</ele>
        <time>2018-05-06T12:00:02Z</time>
      </trkpt>
      <trkpt lat="42.33796" lon="0.24198">
        <ele>615.3</ele>
        <time>2018-05-06T12:00:05Z</time>
      </trkpt>
      <trkpt lat="42.33776" lon="0.242">
        <ele>612.8</ele>
        <time>2018-05-06T12:00:09Z</time>
      </trkpt>
      <trkpt lat="42.33766" lon="0.24207">
        <ele>611.3</ele>
        <time>2018-05-06T12:00:11Z</time>
      </trkpt>
      <trkpt lat="42.33748" lon="0.24216">
        <ele>608.8</ele>
        <time>2018-05-06T12:00:19Z</time>
      </trkpt>
      <trkpt lat="42.33738" lon="0.24223">
        <ele>607.1</ele>
        <time>2018-05-06T12:00:22Z</time>
      </trkpt>
      <trkpt lat="42.33721" lon="0.24233">
        <ele>605.7</ele>
        <time>2018-05-06T12:00:29Z</time>
      </trkpt>
      <trkpt lat="42.33712" lon="0.2424">
        <ele>604.4</ele>
        <time>2018-05-06T12:00:32Z</time>
      </trkpt>
      <trkpt lat="42.33695" lon="0.24256">
        <ele>601</ele>
        <time>2018-05-06T12:00:37Z</time>
      </trkpt>
      <trkpt lat="42.33674" lon="0.24257">
        <ele>600.3</ele>
        <time>2018-05-06T12:00:42Z</time>
      </trkpt>
      <trkpt lat="42.33665" lon="0.24256">
        <ele>599.6</ele>
        <time>2018-05-06T12:00:44Z</time>
      </trkpt>
      <trkpt lat="42.33646" lon="0.24257">
        <ele>597.9</ele>
        <time>2018-05-06T12:00:48Z</time>
      </trkpt>
      <trkpt lat="42.33629" lon="0.24248">
        <ele>596.3</ele>
        <time>2018-05-06T12:00:52Z</time>
      </trkpt>
      <trkpt lat="42.33612" lon="0.24234">
        <ele>594.4</ele>
        <time>2018-05-06T12:00:56Z</time>
      </trkpt>
      <trkpt lat="42.33609" lon="0.2423">
        <ele>593.9</ele>
        <time>2018-05-06T12:00:57Z</time>
      </trkpt>
      <trkpt lat="42.33596" lon="0.24211">
        <ele>591.9</ele>
        <time>2018-05-06T12:01:01Z</time>
      </trkpt>
      <trkpt lat="42.3359" lon="0.24187">
        <ele>590</ele>
        <time>2018-05-06T12:01:08Z</time>
      </trkpt>
      <trkpt lat="42.33595" lon="0.24161">
        <ele>589.7</ele>
        <time>2018-05-06T12:01:15Z</time>
      </trkpt>
      <trkpt lat="42.33601" lon="0.24131">
        <ele>589.6</ele>
        <time>2018-05-06T12:01:19Z</time>
      </trkpt>
      <trkpt lat="42.33598" lon="0.24105">
        <ele>589.7</ele>
        <time>2018-05-06T12:01:22Z</time>
      </trkpt>
      <trkpt lat="42.33582" lon="0.24098">
        <ele>590.1</ele>
        <time>2018-05-06T12:01:26Z</time>
      </trkpt>
      <trkpt lat="42.33573" lon="0.24107">
        <ele>590.7</ele>
        <time>2018-05-06T12:01:29Z</time>
      </trkpt>
      <trkpt lat="42.33554" lon="0.24114">
        <ele>592.4</ele>
        <time>2018-05-06T12:01:35Z</time>
      </trkpt>
      <trkpt lat="42.33538" lon="0.24103">
        <ele>594.6</ele>
        <time>2018-05-06T12:01:46Z</time>
      </trkpt>
      <trkpt lat="42.33525" lon="0.24083">
        <ele>598</ele>
        <time>2018-05-06T12:02:03Z</time>
      </trkpt>
      <trkpt lat="42.33532" lon="0.24101">
        <ele>596.4</ele>
        <time>2018-05-06T12:02:23Z</time>
      </trkpt>
      <trkpt lat="42.33544" lon="0.24118">
        <ele>593.5</ele>
        <time>2018-05-06T12:02:38Z</time>
      </trkpt>
      <trkpt lat="42.33564" lon="0.24111">
        <ele>591.5</ele>
        <time>2018-05-06T12:02:44Z</time>
      </trkpt>
      <trkpt lat="42.33579" lon="0.24097">
        <ele>590.2</ele>
        <time>2018-05-06T12:02:48Z</time>
      </trkpt>
      <trkpt lat="42.33598" lon="0.24108">
        <ele>589.7</ele>
        <time>2018-05-06T12:02:52Z</time>
      </trkpt>
      <trkpt lat="42.33599" lon="0.24133">
        <ele>589.6</ele>
        <time>2018-05-06T12:02:56Z</time>
      </trkpt>
      <trkpt lat="42.33598" lon="0.24138">
        <ele>589.6</ele>
        <time>2018-05-06T12:02:57Z</time>
      </trkpt>
      <trkpt lat="42.33593" lon="0.24166">
        <ele>589.8</ele>
        <time>2018-05-06T12:03:03Z</time>
      </trkpt>
      <trkpt lat="42.33588" lon="0.24192">
        <ele>590</ele>
        <time>2018-05-06T12:03:09Z</time>
      </trkpt>
      <trkpt lat="42.33589" lon="0.24218">
        <ele>589.5</ele>
        <time>2018-05-06T12:03:15Z</time>
      </trkpt>
      <trkpt lat="42.336" lon="0.2424">
        <ele>588.9</ele>
        <time>2018-05-06T12:03:21Z</time>
      </trkpt>
      <trkpt lat="42.33612" lon="0.24259">
        <ele>587.6</ele>
        <time>2018-05-06T12:03:25Z</time>
      </trkpt>
      <trkpt lat="42.33625" lon="0.24277">
        <ele>586.5</ele>
        <time>2018-05-06T12:03:28Z</time>
      </trkpt>
      <trkpt lat="42.33641" lon="0.243">
        <ele>585.7</ele>
        <time>2018-05-06T12:03:31Z</time>
      </trkpt>
      <trkpt lat="42.33655" lon="0.24314">
        <ele>584.8</ele>
        <time>2018-05-06T12:03:33Z</time>
      </trkpt>
      <trkpt lat="42.33672" lon="0.24325">
        <ele>583.6</ele>
        <time>2018-05-06T12:03:35Z</time>
      </trkpt>
      <trkpt lat="42.3369" lon="0.24334">
        <ele>583.3</ele>
        <time>2018-05-06T12:03:37Z</time>
      </trkpt>
      <trkpt lat="42.3371" lon="0.24347">
        <ele>582.7</ele>
        <time>2018-05-06T12:03:40Z</time>
      </trkpt>
      <trkpt lat="42.33716" lon="0.24369">
        <ele>582</ele>
        <time>2018-05-06T12:03:43Z</time>
      </trkpt>
      <trkpt lat="42.33708" lon="0.24392">
        <ele>581.6</ele>
        <time>2018-05-06T12:03:46Z</time>
      </trkpt>
      <trkpt lat="42.33704" lon="0.244">
        <ele>581.5</ele>
        <time>2018-05-06T12:03:47Z</time>
      </trkpt>
      <trkpt lat="42.33699" lon="0.24417">
        <ele>580.9</ele>
        <time>2018-05-06T12:03:49Z</time>
      </trkpt>
      <trkpt lat="42.33696" lon="0.24445">
        <ele>580.4</ele>
        <time>2018-05-06T12:03:52Z</time>
      </trkpt>
      <trkpt lat="42.33697" lon="0.24454">
        <ele>580.2</ele>
        <time>2018-05-06T12:03:53Z</time>
      </trkpt>
      <trkpt lat="42.33701" lon="0.24481">
        <ele>579.3</ele>
        <time>2018-05-06T12:03:57Z</time>
      </trkpt>
      <trkpt lat="42.33703" lon="0.24495">
        <ele>578.8</ele>
        <time>2018-05-06T12:03:59Z</time>
      </trkpt>
      <trkpt lat="42.33709" lon="0.2452">
        <ele>577.9</ele>
        <time>2018-05-06T12:04:02Z</time>
      </trkpt>
      <trkpt lat="42.33717" lon="0.24548">
        <ele>577.2</ele>
        <time>2018-05-06T12:04:05Z</time>
      </trkpt>
      <trkpt lat="42.33724" lon="0.24568">
        <ele>576.5</ele>
        <time>2018-05-06T12:04:07Z</time>
      </trkpt>
      <trkpt lat="42.33744" lon="0.24593">
        <ele>575.6</ele>
        <time>2018-05-06T12:04:10Z</time>
      </trkpt>
      <trkpt lat="42.33752" lon="0.246">
        <ele>575.5</ele>
        <time>2018-05-06T12:04:11Z</time>
      </trkpt>
      <trkpt lat="42.33767" lon="0.24614">
        <ele>575.4</ele>
        <time>2018-05-06T12:04:13Z</time>
      </trkpt>
      <trkpt lat="42.33788" lon="0.24635">
        <ele>575.4</ele>
        <time>2018-05-06T12:04:16Z</time>
      </trkpt>
      <trkpt lat="42.33805" lon="0.24659">
        <ele>575.5</ele>
        <time>2018-05-06T12:04:19Z</time>
      </trkpt>
      <trkpt lat="42.33821" lon="0.24679">
        <ele>575.6</ele>
        <time>2018-05-06T12:04:22Z</time>
      </trkpt>
      <trkpt lat="42.33839" lon="0.24688">
        <ele>575.9</ele>
        <time>2018-05-06T12:04:25Z</time>
      </trkpt>
      <trkpt lat="42.3386" lon="0.24683">
        <ele>576.2</ele>
        <time>2018-05-06T12:04:28Z</time>
      </trkpt>
      <trkpt lat="42.33883" lon="0.24675">
        <ele>576.4</ele>
        <time>2018-05-06T12:04:32Z</time>
      </trkpt>
      <trkpt lat="42.33905" lon="0.24671">
        <ele>576.6</ele>
        <time>2018-05-06T12:04:34Z</time>
      </trkpt>
      <trkpt lat="42.33927" lon="0.2468">
        <ele>576.8</ele>
        <time>2018-05-06T12:04:37Z</time>
      </trkpt>
      <trkpt lat="42.33945" lon="0.24699">
        <ele>577.1</ele>
        <time>2018-05-06T12:04:40Z</time>
      </trkpt>
      <trkpt lat="42.33962" lon="0.24718">
        <ele>577.4</ele>
        <time>2018-05-06T12:04:43Z</time>
      </trkpt>
      <trkpt lat="42.3398" lon="0.24736">
        <ele>577.6</ele>
        <time>2018-05-06T12:04:46Z</time>
      </trkpt>
      <trkpt lat="42.33999" lon="0.24752">
        <ele>577.7</ele>
        <time>2018-05-06T12:04:49Z</time>
      </trkpt>
      <trkpt lat="42.34017" lon="0.24765">
        <ele>578</ele>
        <time>2018-05-06T12:04:52Z</time>
      </trkpt>
      <trkpt lat="42.34033" lon="0.2478">
        <ele>577.7</ele>
        <time>2018-05-06T12:04:55Z</time>
      </trkpt>
      <trkpt lat="42.34049" lon="0.24796">
        <ele>577.3</ele>
        <time>2018-05-06T12:04:58Z</time>
      </trkpt>
      <trkpt lat="42.34063" lon="0.24812">
        <ele>577.3</ele>
        <time>2018-05-06T12:05:01Z</time>
      </trkpt>
      <trkpt lat="42.34081" lon="0.24832">
        <ele>577.3</ele>
        <time>2018-05-06T12:05:05Z</time>
      </trkpt>
      <trkpt lat="42.34098" lon="0.24852">
        <ele>577.4</ele>
        <time>2018-05-06T12:05:09Z</time>
      </trkpt>
      <trkpt lat="42.34116" lon="0.2487">
        <ele>577.4</ele>
        <time>2018-05-06T12:05:13Z</time>
      </trkpt>
      <trkpt lat="42.34133" lon="0.24889">
        <ele>576.9</ele>
        <time>2018-05-06T12:05:17Z</time>
      </trkpt>
      <trkpt lat="42.34151" lon="0.24908">
        <ele>576.8</ele>
        <time>2018-05-06T12:05:21Z</time>
      </trkpt>
      <trkpt lat="42.34168" lon="0.24926">
        <ele>577.4</ele>
        <time>2018-05-06T12:05:25Z</time>
      </trkpt>
      <trkpt lat="42.34185" lon="0.24946">
        <ele>577.9</ele>
        <time>2018-05-06T12:05:29Z</time>
      </trkpt>
      <trkpt lat="42.34196" lon="0.24962">
        <ele>578</ele>
        <time>2018-05-06T12:05:32Z</time>
      </trkpt>
      <trkpt lat="42.34205" lon="0.24989">
        <ele>578.2</ele>
        <time>2018-05-06T12:05:36Z</time>
      </trkpt>
      <trkpt lat="42.34212" lon="0.25018">
        <ele>578.3</ele>
        <time>2018-05-06T12:05:40Z</time>
      </trkpt>
      <trkpt lat="42.34217" lon="0.25048">
        <ele>577.7</ele>
        <time>2018-05-06T12:05:44Z</time>
      </trkpt>
      <trkpt lat="42.34219" lon="0.25079">
        <ele>577</ele>
        <time>2018-05-06T12:05:48Z</time>
      </trkpt>
      <trkpt lat="42.3422" lon="0.2511">
        <ele>576.7</ele>
        <time>2018-05-06T12:05:52Z</time>
      </trkpt>
      <trkpt lat="42.34221" lon="0.25141">
        <ele>576.7</ele>
        <time>2018-05-06T12:05:56Z</time>
      </trkpt>
      <trkpt lat="42.34222" lon="0.25172">
        <ele>576.9</ele>
        <time>2018-05-06T12:06:00Z</time>
      </trkpt>
      <trkpt lat="42.34222" lon="0.25202">
        <ele>576.9</ele>
        <time>2018-05-06T12:06:04Z</time>
      </trkpt>
      <trkpt lat="42.34219" lon="0.25232">
        <ele>576.9</ele>
        <time>2018-05-06T12:06:08Z</time>
      </trkpt>
      <trkpt lat="42.34217" lon="0.25263">
        <ele>576.8</ele>
        <time>2018-05-06T12:06:12Z</time>
      </trkpt>
      <trkpt lat="42.34216" lon="0.25294">
        <ele>576.8</ele>
        <time>2018-05-06T12:06:16Z</time>
      </trkpt>
      <trkpt lat="42.34218" lon="0.25324">
        <ele>576.8</ele>
        <time>2018-05-06T12:06:20Z</time>
      </trkpt>
      <trkpt lat="42.34225" lon="0.2535">
        <ele>576.6</ele>
        <time>2018-05-06T12:06:24Z</time>
      </trkpt>
      <trkpt lat="42.3423" lon="0.25371">
        <ele>576.5</ele>
        <time>2018-05-06T12:06:28Z</time>
      </trkpt>
      <trkpt lat="42.3424" lon="0.25393">
        <ele>576.3</ele>
        <time>2018-05-06T12:06:32Z</time>
      </trkpt>
      <trkpt lat="42.34252" lon="0.25415">
        <ele>576.2</ele>
        <time>2018-05-06T12:06:36Z</time>
      </trkpt>
      <trkpt lat="42.34268" lon="0.25433">
        <ele>576.4</ele>
        <time>2018-05-06T12:06:40Z</time>
      </trkpt>
      <trkpt lat="42.34285" lon="0.25449">
        <ele>576.8</ele>
        <time>2018-05-06T12:06:44Z</time>
      </trkpt>
      <trkpt lat="42.34301" lon="0.25461">
        <ele>577.3</ele>
        <time>2018-05-06T12:06:48Z</time>
      </trkpt>
      <trkpt lat="42.34304" lon="0.25464">
        <ele>577.4</ele>
        <time>2018-05-06T12:06:49Z</time>
      </trkpt>
      <trkpt lat="42.34322" lon="0.25482">
        <ele>577.9</ele>
        <time>2018-05-06T12:06:54Z</time>
      </trkpt>
      <trkpt lat="42.34326" lon="0.25484">
        <ele>578.1</ele>
        <time>2018-05-06T12:06:55Z</time>
      </trkpt>
      <trkpt lat="42.34335" lon="0.2549">
        <ele>578.5</ele>
        <time>2018-05-06T12:06:57Z</time>
      </trkpt>
      <trkpt lat="42.34352" lon="0.25501">
        <ele>579.2</ele>
        <time>2018-05-06T12:07:01Z</time>
      </trkpt>
      <trkpt lat="42.34356" lon="0.25504">
        <ele>579.3</ele>
        <time>2018-05-06T12:07:02Z</time>
      </trkpt>
      <trkpt lat="42.34372" lon="0.25518">
        <ele>579.8</ele>
        <time>2018-05-06T12:07:06Z</time>
      </trkpt>
      <trkpt lat="42.34391" lon="0.25532">
        <ele>580.3</ele>
        <time>2018-05-06T12:07:11Z</time>
      </trkpt>
      <trkpt lat="42.34407" lon="0.25543">
        <ele>580.8</ele>
        <time>2018-05-06T12:07:15Z</time>
      </trkpt>
      <trkpt lat="42.34428" lon="0.25551">
        <ele>581.7</ele>
        <time>2018-05-06T12:07:20Z</time>
      </trkpt>
      <trkpt lat="42.3444" lon="0.25557">
        <ele>582.3</ele>
        <time>2018-05-06T12:07:23Z</time>
      </trkpt>
      <trkpt lat="42.34461" lon="0.25564">
        <ele>583.5</ele>
        <time>2018-05-06T12:07:28Z</time>
      </trkpt>
      <trkpt lat="42.34479" lon="0.2557">
        <ele>584</ele>
        <time>2018-05-06T12:07:34Z</time>
      </trkpt>
      <trkpt lat="42.34482" lon="0.25581">
        <ele>583.8</ele>
        <time>2018-05-06T12:07:56Z</time>
      </trkpt>
      <trkpt lat="42.3448" lon="0.25586">
        <ele>583.3</ele>
        <time>2018-05-06T12:07:58Z</time>
      </trkpt>
      <trkpt lat="42.34474" lon="0.2561">
        <ele>582.2</ele>
        <time>2018-05-06T12:08:17Z</time>
      </trkpt>
      <trkpt lat="42.3447" lon="0.25635">
        <ele>581.4</ele>
        <time>2018-05-06T12:08:24Z</time>
      </trkpt>
      <trkpt lat="42.34471" lon="0.25638">
        <ele>581.3</ele>
        <time>2018-05-06T12:08:25Z</time>
      </trkpt>
      <trkpt lat="42.34488" lon="0.25653">
        <ele>581.6</ele>
        <time>2018-05-06T12:08:32Z</time>
      </trkpt>
      <trkpt lat="42.34505" lon="0.25658">
        <ele>582.1</ele>
        <time>2018-05-06T12:08:38Z</time>
      </trkpt>
      <trkpt lat="42.34515" lon="0.25659">
        <ele>582.3</ele>
        <time>2018-05-06T12:08:41Z</time>
      </trkpt>
      <trkpt lat="42.34526" lon="0.25676">
        <ele>582.2</ele>
        <time>2018-05-06T12:08:46Z</time>
      </trkpt>
      <trkpt lat="42.34536" lon="0.25674">
        <ele>582.5</ele>
        <time>2018-05-06T12:08:50Z</time>
      </trkpt>
      <trkpt lat="42.34538" lon="0.25674">
        <ele>582.6</ele>
        <time>2018-05-06T12:08:51Z</time>
      </trkpt>
      <trkpt lat="42.34554" lon="0.25684">
        <ele>582.7</ele>
        <time>2018-05-06T12:08:57Z</time>
      </trkpt>
      <trkpt lat="42.34572" lon="0.25692">
        <ele>582.9</ele>
        <time>2018-05-06T12:09:03Z</time>
      </trkpt>
      <trkpt lat="42.34581" lon="0.257">
        <ele>583</ele>
        <time>2018-05-06T12:09:08Z</time>
      </trkpt>
      <trkpt lat="42.34591" lon="0.2571">
        <ele>583.1</ele>
        <time>2018-05-06T12:09:12Z</time>
      </trkpt>
      <trkpt lat="42.34608" lon="0.2572">
        <ele>583.4</ele>
        <time>2018-05-06T12:09:31Z</time>
      </trkpt>
      <trkpt lat="42.34626" lon="0.25724">
        <ele>583.8</ele>
        <time>2018-05-06T12:09:38Z</time>
      </trkpt>
      <trkpt lat="42.34644" lon="0.25734">
        <ele>584.3</ele>
        <time>2018-05-06T12:09:45Z</time>
      </trkpt>
      <trkpt lat="42.34664" lon="0.25743">
        <ele>584.8</ele>
        <time>2018-05-06T12:09:52Z</time>
      </trkpt>
      <trkpt lat="42.34683" lon="0.25748">
        <ele>585.2</ele>
        <time>2018-05-06T12:09:59Z</time>
      </trkpt>
      <trkpt lat="42.34691" lon="0.25767">
        <ele>585.2</ele>
        <time>2018-05-06T12:10:05Z</time>
      </trkpt>
      <trkpt lat="42.34704" lon="0.25779">
        <ele>585.2</ele>
        <time>2018-05-06T12:10:11Z</time>
      </trkpt>
      <trkpt lat="42.34711" lon="0.2578">
        <ele>585.3</ele>
        <time>2018-05-06T12:10:14Z</time>
      </trkpt>
      <trkpt lat="42.34717" lon="0.25782">
        <ele>585.3</ele>
        <time>2018-05-06T12:10:17Z</time>
      </trkpt>
      <trkpt lat="42.34732" lon="0.25795">
        <ele>585.4</ele>
        <time>2018-05-06T12:10:25Z</time>
      </trkpt>
      <trkpt lat="42.34741" lon="0.25799">
        <ele>585.4</ele>
        <time>2018-05-06T12:10:29Z</time>
      </trkpt>
      <trkpt lat="42.34759" lon="0.2581">
        <ele>585.6</ele>
        <time>2018-05-06T12:10:35Z</time>
      </trkpt>
      <trkpt lat="42.34774" lon="0.25824">
        <ele>585.7</ele>
        <time>2018-05-06T12:10:42Z</time>
      </trkpt>
      <trkpt lat="42.34782" lon="0.25841">
        <ele>585.9</ele>
        <time>2018-05-06T12:10:47Z</time>
      </trkpt>
      <trkpt lat="42.34797" lon="0.25855">
        <ele>586.2</ele>
        <time>2018-05-06T12:10:54Z</time>
      </trkpt>
      <trkpt lat="42.34817" lon="0.25865">
        <ele>586.6</ele>
        <time>2018-05-06T12:11:01Z</time>
      </trkpt>
      <trkpt lat="42.34833" lon="0.25881">
        <ele>587</ele>
        <time>2018-05-06T12:11:07Z</time>
      </trkpt>
      <trkpt lat="42.34852" lon="0.25887">
        <ele>587.3</ele>
        <time>2018-05-06T12:11:13Z</time>
      </trkpt>
      <trkpt lat="42.34865" lon="0.25883">
        <ele>587.6</ele>
        <time>2018-05-06T12:11:19Z</time>
      </trkpt>
      <trkpt lat="42.34869" lon="0.25878">
        <ele>587.8</ele>
        <time>2018-05-06T12:11:22Z</time>
      </trkpt>
      <trkpt lat="42.34887" lon="0.2588">
        <ele>588.3</ele>
        <time>2018-05-06T12:11:29Z</time>
      </trkpt>
      <trkpt lat="42.34906" lon="0.25884">
        <ele>588.8</ele>
        <time>2018-05-06T12:11:35Z</time>
      </trkpt>
      <trkpt lat="42.3491" lon="0.25882">
        <ele>589</ele>
        <time>2018-05-06T12:11:37Z</time>
      </trkpt>
      <trkpt lat="42.34924" lon="0.25882">
        <ele>589.7</ele>
        <time>2018-05-06T12:11:43Z</time>
      </trkpt>
      <trkpt lat="42.34944" lon="0.25891">
        <ele>590</ele>
        <time>2018-05-06T12:11:50Z</time>
      </trkpt>
      <trkpt lat="42.34962" lon="0.25895">
        <ele>590.6</ele>
        <time>2018-05-06T12:11:58Z</time>
      </trkpt>
      <trkpt lat="42.34981" lon="0.259">
        <ele>591.3</ele>
        <time>2018-05-06T12:12:07Z</time>
      </trkpt>
      <trkpt lat="42.35" lon="0.25911">
        <ele>591.9</ele>
        <time>2018-05-06T12:12:14Z</time>
      </trkpt>
      <trkpt lat="42.35017" lon="0.25915">
        <ele>592.3</ele>
        <time>2018-05-06T12:13:04Z</time>
      </trkpt>
      <trkpt lat="42.35033" lon="0.25927">
        <ele>592.2</ele>
        <time>2018-05-06T12:13:26Z</time>
      </trkpt>
      <trkpt lat="42.35048" lon="0.2594">
        <ele>592.2</ele>
        <time>2018-05-06T12:13:34Z</time>
      </trkpt>
      <trkpt lat="42.35066" lon="0.25946">
        <ele>592.6</ele>
        <time>2018-05-06T12:13:40Z</time>
      </trkpt>
      <trkpt lat="42.35084" lon="0.25955">
        <ele>592.7</ele>
        <time>2018-05-06T12:13:46Z</time>
      </trkpt>
      <trkpt lat="42.35103" lon="0.25964">
        <ele>592.8</ele>
        <time>2018-05-06T12:13:52Z</time>
      </trkpt>
      <trkpt lat="42.35121" lon="0.25969">
        <ele>592.9</ele>
        <time>2018-05-06T12:13:58Z</time>
      </trkpt>
      <trkpt lat="42.35138" lon="0.25983">
        <ele>593.2</ele>
        <time>2018-05-06T12:14:06Z</time>
      </trkpt>
      <trkpt lat="42.35153" lon="0.26">
        <ele>593.2</ele>
        <time>2018-05-06T12:14:13Z</time>
      </trkpt>
      <trkpt lat="42.35167" lon="0.26017">
        <ele>593.3</ele>
        <time>2018-05-06T12:14:21Z</time>
      </trkpt>
      <trkpt lat="42.35185" lon="0.26027">
        <ele>593.5</ele>
        <time>2018-05-06T12:14:29Z</time>
      </trkpt>
      <trkpt lat="42.35203" lon="0.2603">
        <ele>594</ele>
        <time>2018-05-06T12:14:35Z</time>
      </trkpt>
      <trkpt lat="42.35222" lon="0.26036">
        <ele>594.4</ele>
        <time>2018-05-06T12:14:43Z</time>
      </trkpt>
      <trkpt lat="42.35239" lon="0.26046">
        <ele>594.4</ele>
        <time>2018-05-06T12:14:55Z</time>
      </trkpt>
      <trkpt lat="42.3524" lon="0.26054">
        <ele>594.2</ele>
        <time>2018-05-06T12:14:59Z</time>
      </trkpt>
      <trkpt lat="42.3523" lon="0.26068">
        <ele>593.9</ele>
        <time>2018-05-06T12:15:05Z</time>
      </trkpt>
      <trkpt lat="42.35241" lon="0.2609">
        <ele>593.7</ele>
        <time>2018-05-06T12:15:14Z</time>
      </trkpt>
      <trkpt lat="42.35244" lon="0.26094">
        <ele>593.7</ele>
        <time>2018-05-06T12:15:16Z</time>
      </trkpt>
      <trkpt lat="42.3526" lon="0.26106">
        <ele>593.8</ele>
        <time>2018-05-06T12:15:23Z</time>
      </trkpt>
      <trkpt lat="42.35274" lon="0.26126">
        <ele>594.4</ele>
        <time>2018-05-06T12:15:30Z</time>
      </trkpt>
      <trkpt lat="42.35276" lon="0.26151">
        <ele>595.1</ele>
        <time>2018-05-06T12:15:37Z</time>
      </trkpt>
      <trkpt lat="42.35284" lon="0.26178">
        <ele>595.5</ele>
        <time>2018-05-06T12:15:43Z</time>
      </trkpt>
      <trkpt lat="42.3528" lon="0.26202">
        <ele>595.2</ele>
        <time>2018-05-06T12:15:47Z</time>
      </trkpt>
      <trkpt lat="42.35275" lon="0.26211">
        <ele>594.7</ele>
        <time>2018-05-06T12:15:49Z</time>
      </trkpt>
      <trkpt lat="42.35263" lon="0.26229">
        <ele>593.9</ele>
        <time>2018-05-06T12:15:54Z</time>
      </trkpt>
      <trkpt lat="42.35262" lon="0.26256">
        <ele>593.3</ele>
        <time>2018-05-06T12:16:00Z</time>
      </trkpt>
      <trkpt lat="42.35262" lon="0.2628">
        <ele>593.2</ele>
        <time>2018-05-06T12:16:05Z</time>
      </trkpt>
      <trkpt lat="42.35259" lon="0.2629">
        <ele>593.2</ele>
        <time>2018-05-06T12:16:08Z</time>
      </trkpt>
      <trkpt lat="42.35257" lon="0.26301">
        <ele>593</ele>
        <time>2018-05-06T12:16:12Z</time>
      </trkpt>
      <trkpt lat="42.35257" lon="0.26326">
        <ele>593.4</ele>
        <time>2018-05-06T12:16:19Z</time>
      </trkpt>
      <trkpt lat="42.35269" lon="0.26349">
        <ele>594.2</ele>
        <time>2018-05-06T12:16:25Z</time>
      </trkpt>
      <trkpt lat="42.3528" lon="0.26372">
        <ele>595.3</ele>
        <time>2018-05-06T12:16:31Z</time>
      </trkpt>
      <trkpt lat="42.35291" lon="0.26395">
        <ele>596.3</ele>
        <time>2018-05-06T12:16:38Z</time>
      </trkpt>
      <trkpt lat="42.35297" lon="0.2642">
        <ele>597.2</ele>
        <time>2018-05-06T12:16:45Z</time>
      </trkpt>
      <trkpt lat="42.35302" lon="0.26446">
        <ele>597.8</ele>
        <time>2018-05-06T12:16:52Z</time>
      </trkpt>
      <trkpt lat="42.35307" lon="0.26463">
        <ele>598</ele>
        <time>2018-05-06T12:16:57Z</time>
      </trkpt>
      <trkpt lat="42.35316" lon="0.26478">
        <ele>598.1</ele>
        <time>2018-05-06T12:17:02Z</time>
      </trkpt>
      <trkpt lat="42.35328" lon="0.26497">
        <ele>598.2</ele>
        <time>2018-05-06T12:17:09Z</time>
      </trkpt>
      <trkpt lat="42.35337" lon="0.26517">
        <ele>598.3</ele>
        <time>2018-05-06T12:18:17Z</time>
      </trkpt>
      <trkpt lat="42.35336" lon="0.26545">
        <ele>598.4</ele>
        <time>2018-05-06T12:18:26Z</time>
      </trkpt>
      <trkpt lat="42.35332" lon="0.2657">
        <ele>598.6</ele>
        <time>2018-05-06T12:18:32Z</time>
      </trkpt>
      <trkpt lat="42.35331" lon="0.26597">
        <ele>599</ele>
        <time>2018-05-06T12:18:38Z</time>
      </trkpt>
      <trkpt lat="42.35332" lon="0.26621">
        <ele>600.1</ele>
        <time>2018-05-06T12:18:44Z</time>
      </trkpt>
      <trkpt lat="42.35337" lon="0.26646">
        <ele>601.1</ele>
        <time>2018-05-06T12:18:51Z</time>
      </trkpt>
      <trkpt lat="42.3534" lon="0.26671">
        <ele>602</ele>
        <time>2018-05-06T12:19:00Z</time>
      </trkpt>
      <trkpt lat="42.35343" lon="0.26696">
        <ele>602.5</ele>
        <time>2018-05-06T12:19:19Z</time>
      </trkpt>
      <trkpt lat="42.35341" lon="0.26725">
        <ele>602.2</ele>
        <time>2018-05-06T12:19:25Z</time>
      </trkpt>
      <trkpt lat="42.35342" lon="0.26741">
        <ele>602</ele>
        <time>2018-05-06T12:19:29Z</time>
      </trkpt>
      <trkpt lat="42.35333" lon="0.26762">
        <ele>601.2</ele>
        <time>2018-05-06T12:19:35Z</time>
      </trkpt>
      <trkpt lat="42.35328" lon="0.26771">
        <ele>601.1</ele>
        <time>2018-05-06T12:19:38Z</time>
      </trkpt>
      <trkpt lat="42.35328" lon="0.26784">
        <ele>601.1</ele>
        <time>2018-05-06T12:19:42Z</time>
      </trkpt>
      <trkpt lat="42.35329" lon="0.26798">
        <ele>601.4</ele>
        <time>2018-05-06T12:19:52Z</time>
      </trkpt>
      <trkpt lat="42.35323" lon="0.26822">
        <ele>601.4</ele>
        <time>2018-05-06T12:20:00Z</time>
      </trkpt>
      <trkpt lat="42.35322" lon="0.26831">
        <ele>601.6</ele>
        <time>2018-05-06T12:20:02Z</time>
      </trkpt>
      <trkpt lat="42.35327" lon="0.26854">
        <ele>601.9</ele>
        <time>2018-05-06T12:20:08Z</time>
      </trkpt>
      <trkpt lat="42.35338" lon="0.26876">
        <ele>602.4</ele>
        <time>2018-05-06T12:20:14Z</time>
      </trkpt>
      <trkpt lat="42.3534" lon="0.26893">
        <ele>602.6</ele>
        <time>2018-05-06T12:20:20Z</time>
      </trkpt>
      <trkpt lat="42.3534" lon="0.26921">
        <ele>602.8</ele>
        <time>2018-05-06T12:20:27Z</time>
      </trkpt>
      <trkpt lat="42.35339" lon="0.26948">
        <ele>602.9</ele>
        <time>2018-05-06T12:20:33Z</time>
      </trkpt>
      <trkpt lat="42.35344" lon="0.26971">
        <ele>603</ele>
        <time>2018-05-06T12:20:38Z</time>
      </trkpt>
      <trkpt lat="42.35353" lon="0.26993">
        <ele>603.3</ele>
        <time>2018-05-06T12:20:43Z</time>
      </trkpt>
      <trkpt lat="42.35362" lon="0.27017">
        <ele>603.9</ele>
        <time>2018-05-06T12:20:48Z</time>
      </trkpt>
      <trkpt lat="42.35369" lon="0.27044">
        <ele>604.8</ele>
        <time>2018-05-06T12:20:54Z</time>
      </trkpt>
      <trkpt lat="42.35375" lon="0.27071">
        <ele>605.8</ele>
        <time>2018-05-06T12:21:00Z</time>
      </trkpt>
      <trkpt lat="42.35387" lon="0.27092">
        <ele>606.2</ele>
        <time>2018-05-06T12:21:07Z</time>
      </trkpt>
      <trkpt lat="42.35399" lon="0.2711">
        <ele>606.5</ele>
        <time>2018-05-06T12:21:13Z</time>
      </trkpt>
      <trkpt lat="42.35417" lon="0.27123">
        <ele>606.6</ele>
        <time>2018-05-06T12:21:18Z</time>
      </trkpt>
      <trkpt lat="42.35421" lon="0.27125">
        <ele>606.6</ele>
        <time>2018-05-06T12:21:19Z</time>
      </trkpt>
      <trkpt lat="42.35439" lon="0.27132">
        <ele>606.6</ele>
        <time>2018-05-06T12:21:23Z</time>
      </trkpt>
      <trkpt lat="42.35454" lon="0.27127">
        <ele>606.6</ele>
        <time>2018-05-06T12:21:26Z</time>
      </trkpt>
      <trkpt lat="42.35458" lon="0.27125">
        <ele>606.6</ele>
        <time>2018-05-06T12:21:27Z</time>
      </trkpt>
      <trkpt lat="42.35477" lon="0.27119">
        <ele>606.6</ele>
        <time>2018-05-06T12:21:31Z</time>
      </trkpt>
      <trkpt lat="42.35494" lon="0.27108">
        <ele>606.7</ele>
        <time>2018-05-06T12:21:35Z</time>
      </trkpt>
      <trkpt lat="42.35511" lon="0.27096">
        <ele>606.8</ele>
        <time>2018-05-06T12:21:40Z</time>
      </trkpt>
      <trkpt lat="42.35526" lon="0.27097">
        <ele>607</ele>
        <time>2018-05-06T12:21:47Z</time>
      </trkpt>
      <trkpt lat="42.35534" lon="0.27111">
        <ele>607.2</ele>
        <time>2018-05-06T12:21:52Z</time>
      </trkpt>
      <trkpt lat="42.35549" lon="0.27125">
        <ele>607.2</ele>
        <time>2018-05-06T12:21:57Z</time>
      </trkpt>
      <trkpt lat="42.35566" lon="0.27138">
        <ele>607.1</ele>
        <time>2018-05-06T12:22:02Z</time>
      </trkpt>
      <trkpt lat="42.35583" lon="0.27152">
        <ele>607</ele>
        <time>2018-05-06T12:22:07Z</time>
      </trkpt>
      <trkpt lat="42.35599" lon="0.27168">
        <ele>606.7</ele>
        <time>2018-05-06T12:22:12Z</time>
      </trkpt>
      <trkpt lat="42.35614" lon="0.27182">
        <ele>606.7</ele>
        <time>2018-05-06T12:22:17Z</time>
      </trkpt>
      <trkpt lat="42.35631" lon="0.27192">
        <ele>606.9</ele>
        <time>2018-05-06T12:22:22Z</time>
      </trkpt>
      <trkpt lat="42.35649" lon="0.27181">
        <ele>607.2</ele>
        <time>2018-05-06T12:22:27Z</time>
      </trkpt>
      <trkpt lat="42.35667" lon="0.27167">
        <ele>607.6</ele>
        <time>2018-05-06T12:22:32Z</time>
      </trkpt>
      <trkpt lat="42.35685" lon="0.27153">
        <ele>608.1</ele>
        <time>2018-05-06T12:22:37Z</time>
      </trkpt>
      <trkpt lat="42.35701" lon="0.2714">
        <ele>608.6</ele>
        <time>2018-05-06T12:22:42Z</time>
      </trkpt>
      <trkpt lat="42.35719" lon="0.27129">
        <ele>609.1</ele>
        <time>2018-05-06T12:22:47Z</time>
      </trkpt>
      <trkpt lat="42.35723" lon="0.27128">
        <ele>609.1</ele>
        <time>2018-05-06T12:22:48Z</time>
      </trkpt>
      <trkpt lat="42.35743" lon="0.2713">
        <ele>609.5</ele>
        <time>2018-05-06T12:22:53Z</time>
      </trkpt>
      <trkpt lat="42.35758" lon="0.27136">
        <ele>609.6</ele>
        <time>2018-05-06T12:22:57Z</time>
      </trkpt>
      <trkpt lat="42.35776" lon="0.2714">
        <ele>609.6</ele>
        <time>2018-05-06T12:23:02Z</time>
      </trkpt>
      <trkpt lat="42.35796" lon="0.27149">
        <ele>609.6</ele>
        <time>2018-05-06T12:23:08Z</time>
      </trkpt>
      <trkpt lat="42.35814" lon="0.27151">
        <ele>609.8</ele>
        <time>2018-05-06T12:23:13Z</time>
      </trkpt>
      <trkpt lat="42.35834" lon="0.27148">
        <ele>610.3</ele>
        <time>2018-05-06T12:23:19Z</time>
      </trkpt>
      <trkpt lat="42.3585" lon="0.27137">
        <ele>610.9</ele>
        <time>2018-05-06T12:23:24Z</time>
      </trkpt>
      <trkpt lat="42.35865" lon="0.27118">
        <ele>611.8</ele>
        <time>2018-05-06T12:23:30Z</time>
      </trkpt>
      <trkpt lat="42.35882" lon="0.27102">
        <ele>612.4</ele>
        <time>2018-05-06T12:23:36Z</time>
      </trkpt>
      <trkpt lat="42.35901" lon="0.27099">
        <ele>612.9</ele>
        <time>2018-05-06T12:23:42Z</time>
      </trkpt>
      <trkpt lat="42.3592" lon="0.27095">
        <ele>613.1</ele>
        <time>2018-05-06T12:23:48Z</time>
      </trkpt>
      <trkpt lat="42.35925" lon="0.27092">
        <ele>613.2</ele>
        <time>2018-05-06T12:23:50Z</time>
      </trkpt>
      <trkpt lat="42.35942" lon="0.2708">
        <ele>613.4</ele>
        <time>2018-05-06T12:23:57Z</time>
      </trkpt>
      <trkpt lat="42.35961" lon="0.27072">
        <ele>613.5</ele>
        <time>2018-05-06T12:24:03Z</time>
      </trkpt>
      <trkpt lat="42.3598" lon="0.2706">
        <ele>613.7</ele>
        <time>2018-05-06T12:24:09Z</time>
      </trkpt>
      <trkpt lat="42.35998" lon="0.27052">
        <ele>613.8</ele>
        <time>2018-05-06T12:24:14Z</time>
      </trkpt>
      <trkpt lat="42.36018" lon="0.27044">
        <ele>613.9</ele>
        <time>2018-05-06T12:24:19Z</time>
      </trkpt>
      <trkpt lat="42.36038" lon="0.27039">
        <ele>614.1</ele>
        <time>2018-05-06T12:24:24Z</time>
      </trkpt>
      <trkpt lat="42.36056" lon="0.27038">
        <ele>614.3</ele>
        <time>2018-05-06T12:24:29Z</time>
      </trkpt>
      <trkpt lat="42.36064" lon="0.27038">
        <ele>614.3</ele>
        <time>2018-05-06T12:24:31Z</time>
      </trkpt>
      <trkpt lat="42.36079" lon="0.27039">
        <ele>614.3</ele>
        <time>2018-05-06T12:24:35Z</time>
      </trkpt>
      <trkpt lat="42.36099" lon="0.27033">
        <ele>614.4</ele>
        <time>2018-05-06T12:24:42Z</time>
      </trkpt>
      <trkpt lat="42.36116" lon="0.27026">
        <ele>614.3</ele>
        <time>2018-05-06T12:24:49Z</time>
      </trkpt>
      <trkpt lat="42.36136" lon="0.2702">
        <ele>614.3</ele>
        <time>2018-05-06T12:24:55Z</time>
      </trkpt>
      <trkpt lat="42.36153" lon="0.27004">
        <ele>614.4</ele>
        <time>2018-05-06T12:25:01Z</time>
      </trkpt>
      <trkpt lat="42.36173" lon="0.27001">
        <ele>614.5</ele>
        <time>2018-05-06T12:25:07Z</time>
      </trkpt>
      <trkpt lat="42.36191" lon="0.27006">
        <ele>614.4</ele>
        <time>2018-05-06T12:25:12Z</time>
      </trkpt>
      <trkpt lat="42.3621" lon="0.2702">
        <ele>614.2</ele>
        <time>2018-05-06T12:25:18Z</time>
      </trkpt>
      <trkpt lat="42.36226" lon="0.27031">
        <ele>614.5</ele>
        <time>2018-05-06T12:25:23Z</time>
      </trkpt>
      <trkpt lat="42.36245" lon="0.27044">
        <ele>615.1</ele>
        <time>2018-05-06T12:25:29Z</time>
      </trkpt>
      <trkpt lat="42.36261" lon="0.27064">
        <ele>615.8</ele>
        <time>2018-05-06T12:25:35Z</time>
      </trkpt>
      <trkpt lat="42.36278" lon="0.27079">
        <ele>616.3</ele>
        <time>2018-05-06T12:25:41Z</time>
      </trkpt>
      <trkpt lat="42.36298" lon="0.27083">
        <ele>616.8</ele>
        <time>2018-05-06T12:25:47Z</time>
      </trkpt>
      <trkpt lat="42.36314" lon="0.27098">
        <ele>617.2</ele>
        <time>2018-05-06T12:25:53Z</time>
      </trkpt>
      <trkpt lat="42.36333" lon="0.27113">
        <ele>617.3</ele>
        <time>2018-05-06T12:25:59Z</time>
      </trkpt>
      <trkpt lat="42.36352" lon="0.27123">
        <ele>617.3</ele>
        <time>2018-05-06T12:26:04Z</time>
      </trkpt>
      <trkpt lat="42.36368" lon="0.27133">
        <ele>617.2</ele>
        <time>2018-05-06T12:26:09Z</time>
      </trkpt>
      <trkpt lat="42.36385" lon="0.2714">
        <ele>617.2</ele>
        <time>2018-05-06T12:26:15Z</time>
      </trkpt>
      <trkpt lat="42.36404" lon="0.27137">
        <ele>617.1</ele>
        <time>2018-05-06T12:26:20Z</time>
      </trkpt>
      <trkpt lat="42.36423" lon="0.27135">
        <ele>617.1</ele>
        <time>2018-05-06T12:26:25Z</time>
      </trkpt>
      <trkpt lat="42.36431" lon="0.27133">
        <ele>617</ele>
        <time>2018-05-06T12:26:27Z</time>
      </trkpt>
      <trkpt lat="42.36453" lon="0.27131">
        <ele>616.8</ele>
        <time>2018-05-06T12:26:32Z</time>
      </trkpt>
      <trkpt lat="42.36472" lon="0.27127">
        <ele>616.8</ele>
        <time>2018-05-06T12:26:37Z</time>
      </trkpt>
      <trkpt lat="42.36491" lon="0.2712">
        <ele>617.1</ele>
        <time>2018-05-06T12:26:44Z</time>
      </trkpt>
      <trkpt lat="42.3651" lon="0.2712">
        <ele>617.7</ele>
        <time>2018-05-06T12:26:50Z</time>
      </trkpt>
      <trkpt lat="42.36532" lon="0.27122">
        <ele>618.5</ele>
        <time>2018-05-06T12:26:56Z</time>
      </trkpt>
      <trkpt lat="42.36552" lon="0.27124">
        <ele>618.9</ele>
        <time>2018-05-06T12:27:01Z</time>
      </trkpt>
      <trkpt lat="42.36572" lon="0.2713">
        <ele>619.3</ele>
        <time>2018-05-06T12:27:06Z</time>
      </trkpt>
      <trkpt lat="42.3659" lon="0.27128">
        <ele>619.6</ele>
        <time>2018-05-06T12:27:11Z</time>
      </trkpt>
      <trkpt lat="42.36606" lon="0.27122">
        <ele>619.7</ele>
        <time>2018-05-06T12:27:18Z</time>
      </trkpt>
      <trkpt lat="42.36621" lon="0.27139">
        <ele>619.8</ele>
        <time>2018-05-06T12:27:27Z</time>
      </trkpt>
      <trkpt lat="42.36623" lon="0.27141">
        <ele>619.8</ele>
        <time>2018-05-06T12:27:28Z</time>
      </trkpt>
      <trkpt lat="42.3664" lon="0.2715">
        <ele>620.2</ele>
        <time>2018-05-06T12:27:37Z</time>
      </trkpt>
      <trkpt lat="42.36658" lon="0.27155">
        <ele>620.8</ele>
        <time>2018-05-06T12:27:47Z</time>
      </trkpt>
      <trkpt lat="42.36676" lon="0.27159">
        <ele>621.3</ele>
        <time>2018-05-06T12:27:55Z</time>
      </trkpt>
      <trkpt lat="42.36689" lon="0.27178">
        <ele>621.7</ele>
        <time>2018-05-06T12:28:02Z</time>
      </trkpt>
      <trkpt lat="42.367" lon="0.272">
        <ele>622.1</ele>
        <time>2018-05-06T12:28:09Z</time>
      </trkpt>
      <trkpt lat="42.36713" lon="0.27221">
        <ele>622.2</ele>
        <time>2018-05-06T12:28:16Z</time>
      </trkpt>
      <trkpt lat="42.36729" lon="0.27235">
        <ele>622.6</ele>
        <time>2018-05-06T12:28:22Z</time>
      </trkpt>
      <trkpt lat="42.36747" lon="0.27234">
        <ele>623.6</ele>
        <time>2018-05-06T12:28:30Z</time>
      </trkpt>
      <trkpt lat="42.36763" lon="0.27219">
        <ele>625</ele>
        <time>2018-05-06T12:28:37Z</time>
      </trkpt>
      <trkpt lat="42.36776" lon="0.27202">
        <ele>625.8</ele>
        <time>2018-05-06T12:28:42Z</time>
      </trkpt>
      <trkpt lat="42.36792" lon="0.27187">
        <ele>626.5</ele>
        <time>2018-05-06T12:28:47Z</time>
      </trkpt>
      <trkpt lat="42.3681" lon="0.27176">
        <ele>627</ele>
        <time>2018-05-06T12:28:52Z</time>
      </trkpt>
      <trkpt lat="42.36829" lon="0.27167">
        <ele>627.4</ele>
        <time>2018-05-06T12:28:57Z</time>
      </trkpt>
      <trkpt lat="42.36849" lon="0.27159">
        <ele>627.7</ele>
        <time>2018-05-06T12:29:02Z</time>
      </trkpt>
      <trkpt lat="42.36868" lon="0.27151">
        <ele>628</ele>
        <time>2018-05-06T12:29:07Z</time>
      </trkpt>
      <trkpt lat="42.36887" lon="0.27143">
        <ele>628.3</ele>
        <time>2018-05-06T12:29:12Z</time>
      </trkpt>
      <trkpt lat="42.36906" lon="0.27134">
        <ele>628.7</ele>
        <time>2018-05-06T12:29:17Z</time>
      </trkpt>
      <trkpt lat="42.36924" lon="0.27127">
        <ele>629.9</ele>
        <time>2018-05-06T12:29:22Z</time>
      </trkpt>
      <trkpt lat="42.36943" lon="0.27119">
        <ele>630.5</ele>
        <time>2018-05-06T12:29:27Z</time>
      </trkpt>
      <trkpt lat="42.36961" lon="0.27112">
        <ele>631</ele>
        <time>2018-05-06T12:29:32Z</time>
      </trkpt>
      <trkpt lat="42.36979" lon="0.27106">
        <ele>631</ele>
        <time>2018-05-06T12:29:37Z</time>
      </trkpt>
      <trkpt lat="42.36997" lon="0.27103">
        <ele>631.5</ele>
        <time>2018-05-06T12:29:43Z</time>
      </trkpt>
      <trkpt lat="42.37016" lon="0.27098">
        <ele>632.7</ele>
        <time>2018-05-06T12:29:48Z</time>
      </trkpt>
      <trkpt lat="42.37038" lon="0.27095">
        <ele>633.6</ele>
        <time>2018-05-06T12:29:53Z</time>
      </trkpt>
      <trkpt lat="42.37042" lon="0.27094">
        <ele>633.7</ele>
        <time>2018-05-06T12:29:54Z</time>
      </trkpt>
      <trkpt lat="42.37063" lon="0.27091">
        <ele>634.2</ele>
        <time>2018-05-06T12:29:59Z</time>
      </trkpt>
      <trkpt lat="42.37084" lon="0.27088">
        <ele>634.5</ele>
        <time>2018-05-06T12:30:04Z</time>
      </trkpt>
      <trkpt lat="42.37104" lon="0.27085">
        <ele>634.9</ele>
        <time>2018-05-06T12:30:09Z</time>
      </trkpt>
      <trkpt lat="42.37124" lon="0.27082">
        <ele>635</ele>
        <time>2018-05-06T12:30:14Z</time>
      </trkpt>
      <trkpt lat="42.37145" lon="0.27077">
        <ele>635.1</ele>
        <time>2018-05-06T12:30:19Z</time>
      </trkpt>
      <trkpt lat="42.37166" lon="0.27074">
        <ele>635.2</ele>
        <time>2018-05-06T12:30:24Z</time>
      </trkpt>
      <trkpt lat="42.37186" lon="0.2707">
        <ele>635.2</ele>
        <time>2018-05-06T12:30:29Z</time>
      </trkpt>
      <trkpt lat="42.37206" lon="0.27068">
        <ele>635.6</ele>
        <time>2018-05-06T12:30:34Z</time>
      </trkpt>
      <trkpt lat="42.37225" lon="0.27062">
        <ele>636.1</ele>
        <time>2018-05-06T12:30:39Z</time>
      </trkpt>
      <trkpt lat="42.37245" lon="0.27061">
        <ele>636.3</ele>
        <time>2018-05-06T12:30:44Z</time>
      </trkpt>
      <trkpt lat="42.37264" lon="0.27058">
        <ele>636.5</ele>
        <time>2018-05-06T12:30:49Z</time>
      </trkpt>
      <trkpt lat="42.37283" lon="0.27054">
        <ele>636.6</ele>
        <time>2018-05-06T12:30:54Z</time>
      </trkpt>
      <trkpt lat="42.37302" lon="0.27053">
        <ele>637</ele>
        <time>2018-05-06T12:30:59Z</time>
      </trkpt>
      <trkpt lat="42.3732" lon="0.27054">
        <ele>637</ele>
        <time>2018-05-06T12:31:04Z</time>
      </trkpt>
      <trkpt lat="42.37338" lon="0.27058">
        <ele>636.6</ele>
        <time>2018-05-06T12:31:10Z</time>
      </trkpt>
      <trkpt lat="42.3736" lon="0.27065">
        <ele>636.6</ele>
        <time>2018-05-06T12:31:14Z</time>
      </trkpt>
      <trkpt lat="42.37374" lon="0.27072">
        <ele>636.6</ele>
        <time>2018-05-06T12:31:16Z</time>
      </trkpt>
      <trkpt lat="42.37395" lon="0.27087">
        <ele>636.4</ele>
        <time>2018-05-06T12:31:19Z</time>
      </trkpt>
      <trkpt lat="42.37404" lon="0.27094">
        <ele>636.3</ele>
        <time>2018-05-06T12:31:21Z</time>
      </trkpt>
      <trkpt lat="42.37413" lon="0.2711">
        <ele>636.2</ele>
        <time>2018-05-06T12:31:27Z</time>
      </trkpt>
      <trkpt lat="42.37413" lon="0.27113">
        <ele>636.2</ele>
        <time>2018-05-06T12:31:41Z</time>
      </trkpt>
    </trkseg>
  </trk>
  <trk>
    <name><![CDATA[Intégrale de Beroy et option]]></name>
    <extensions>
      <line xmlns="http://www.topografix.com/GPX/gpx_style/0/2">
        <color>FFFF00</color>
        <width>4</width>
      </line>
    </extensions>
    <trkseg>
      <trkpt lat="42.49928" lon="-0.11844">
        <ele>762.5</ele>
        <time>2017-08-13T07:36:13Z</time>
      </trkpt>
      <trkpt lat="42.49922" lon="-0.11836">
        <ele>762.6</ele>
        <time>2017-08-13T07:36:14Z</time>
      </trkpt>
      <trkpt lat="42.4992" lon="-0.11851">
        <ele>762.9</ele>
        <time>2017-08-13T07:36:15Z</time>
      </trkpt>
      <trkpt lat="42.49916" lon="-0.11851">
        <ele>763</ele>
        <time>2017-08-13T07:36:17Z</time>
      </trkpt>
      <trkpt lat="42.49914" lon="-0.11849">
        <ele>763.2</ele>
        <time>2017-08-13T07:36:18Z</time>
      </trkpt>
      <trkpt lat="42.49925" lon="-0.11863">
        <ele>763.6</ele>
        <time>2017-08-13T07:36:20Z</time>
      </trkpt>
      <trkpt lat="42.49921" lon="-0.1186">
        <ele>763.7</ele>
        <time>2017-08-13T07:36:25Z</time>
      </trkpt>
      <trkpt lat="42.49931" lon="-0.11862">
        <ele>763.9</ele>
        <time>2017-08-13T07:36:28Z</time>
      </trkpt>
      <trkpt lat="42.49921" lon="-0.11863">
        <ele>764.2</ele>
        <time>2017-08-13T07:40:53Z</time>
      </trkpt>
      <trkpt lat="42.49922" lon="-0.11871">
        <ele>764.3</ele>
        <time>2017-08-13T07:44:23Z</time>
      </trkpt>
      <trkpt lat="42.49922" lon="-0.11875">
        <ele>764.4</ele>
        <time>2017-08-13T07:44:25Z</time>
      </trkpt>
      <trkpt lat="42.49922" lon="-0.11879">
        <ele>764.5</ele>
        <time>2017-08-13T07:44:26Z</time>
      </trkpt>
      <trkpt lat="42.49921" lon="-0.11884">
        <ele>764.6</ele>
        <time>2017-08-13T07:44:30Z</time>
      </trkpt>
      <trkpt lat="42.49922" lon="-0.11889">
        <ele>764.8</ele>
        <time>2017-08-13T07:44:32Z</time>
      </trkpt>
      <trkpt lat="42.49921" lon="-0.11894">
        <ele>764.9</ele>
        <time>2017-08-13T07:44:34Z</time>
      </trkpt>
      <trkpt lat="42.49921" lon="-0.119">
        <ele>765.1</ele>
        <time>2017-08-13T07:44:35Z</time>
      </trkpt>
      <trkpt lat="42.49922" lon="-0.11907">
        <ele>765.3</ele>
        <time>2017-08-13T07:44:38Z</time>
      </trkpt>
      <trkpt lat="42.49923" lon="-0.11911">
        <ele>765.5</ele>
        <time>2017-08-13T07:44:39Z</time>
      </trkpt>
      <trkpt lat="42.49924" lon="-0.11919">
        <ele>765.7</ele>
        <time>2017-08-13T07:44:40Z</time>
      </trkpt>
      <trkpt lat="42.49925" lon="-0.11923">
        <ele>765.8</ele>
        <time>2017-08-13T07:44:41Z</time>
      </trkpt>
      <trkpt lat="42.49925" lon="-0.11927">
        <ele>766</ele>
        <time>2017-08-13T07:44:42Z</time>
      </trkpt>
      <trkpt lat="42.49925" lon="-0.11931">
        <ele>766.5</ele>
        <time>2017-08-13T07:44:44Z</time>
      </trkpt>
      <trkpt lat="42.49925" lon="-0.11935">
        <ele>766.9</ele>
        <time>2017-08-13T07:44:45Z</time>
      </trkpt>
      <trkpt lat="42.49925" lon="-0.11941">
        <ele>767.8</ele>
        <time>2017-08-13T07:44:47Z</time>
      </trkpt>
      <trkpt lat="42.49925" lon="-0.11948">
        <ele>768.6</ele>
        <time>2017-08-13T07:44:48Z</time>
      </trkpt>
      <trkpt lat="42.49926" lon="-0.11954">
        <ele>769.2</ele>
        <time>2017-08-13T07:44:50Z</time>
      </trkpt>
      <trkpt lat="42.49928" lon="-0.1196">
        <ele>769.7</ele>
        <time>2017-08-13T07:44:53Z</time>
      </trkpt>
      <trkpt lat="42.4993" lon="-0.11964">
        <ele>770</ele>
        <time>2017-08-13T07:44:54Z</time>
      </trkpt>
      <trkpt lat="42.49933" lon="-0.1197">
        <ele>770.6</ele>
        <time>2017-08-13T07:44:55Z</time>
      </trkpt>
      <trkpt lat="42.49936" lon="-0.11976">
        <ele>771.1</ele>
        <time>2017-08-13T07:44:57Z</time>
      </trkpt>
      <trkpt lat="42.49937" lon="-0.11979">
        <ele>771.4</ele>
        <time>2017-08-13T07:44:58Z</time>
      </trkpt>
      <trkpt lat="42.49939" lon="-0.11982">
        <ele>771.7</ele>
        <time>2017-08-13T07:45:00Z</time>
      </trkpt>
      <trkpt lat="42.49942" lon="-0.11987">
        <ele>772.6</ele>
        <time>2017-08-13T07:45:02Z</time>
      </trkpt>
      <trkpt lat="42.49946" lon="-0.11992">
        <ele>773.6</ele>
        <time>2017-08-13T07:45:04Z</time>
      </trkpt>
      <trkpt lat="42.49948" lon="-0.11994">
        <ele>774.2</ele>
        <time>2017-08-13T07:45:05Z</time>
      </trkpt>
      <trkpt lat="42.49952" lon="-0.11999">
        <ele>774.9</ele>
        <time>2017-08-13T07:45:07Z</time>
      </trkpt>
      <trkpt lat="42.49956" lon="-0.12003">
        <ele>775.5</ele>
        <time>2017-08-13T07:45:09Z</time>
      </trkpt>
      <trkpt lat="42.49961" lon="-0.12011">
        <ele>776.1</ele>
        <time>2017-08-13T07:45:11Z</time>
      </trkpt>
      <trkpt lat="42.49963" lon="-0.12013">
        <ele>776.3</ele>
        <time>2017-08-13T07:45:12Z</time>
      </trkpt>
      <trkpt lat="42.49966" lon="-0.12019">
        <ele>776.8</ele>
        <time>2017-08-13T07:45:14Z</time>
      </trkpt>
      <trkpt lat="42.49968" lon="-0.12026">
        <ele>777.4</ele>
        <time>2017-08-13T07:45:17Z</time>
      </trkpt>
      <trkpt lat="42.49969" lon="-0.12029">
        <ele>778</ele>
        <time>2017-08-13T07:45:18Z</time>
      </trkpt>
      <trkpt lat="42.49972" lon="-0.12037">
        <ele>778</ele>
        <time>2017-08-13T07:45:19Z</time>
      </trkpt>
      <trkpt lat="42.49974" lon="-0.12039">
        <ele>778</ele>
        <time>2017-08-13T07:45:20Z</time>
      </trkpt>
      <trkpt lat="42.49977" lon="-0.12042">
        <ele>778</ele>
        <time>2017-08-13T07:45:21Z</time>
      </trkpt>
      <trkpt lat="42.49979" lon="-0.12045">
        <ele>778</ele>
        <time>2017-08-13T07:45:23Z</time>
      </trkpt>
      <trkpt lat="42.49981" lon="-0.12047">
        <ele>778</ele>
        <time>2017-08-13T07:45:24Z</time>
      </trkpt>
      <trkpt lat="42.49984" lon="-0.1205">
        <ele>778</ele>
        <time>2017-08-13T07:45:25Z</time>
      </trkpt>
      <trkpt lat="42.49986" lon="-0.12053">
        <ele>778</ele>
        <time>2017-08-13T07:45:26Z</time>
      </trkpt>
      <trkpt lat="42.49988" lon="-0.12056">
        <ele>778</ele>
        <time>2017-08-13T07:45:27Z</time>
      </trkpt>
      <trkpt lat="42.49989" lon="-0.12059">
        <ele>778</ele>
        <time>2017-08-13T07:45:28Z</time>
      </trkpt>
      <trkpt lat="42.49989" lon="-0.12063">
        <ele>778</ele>
        <time>2017-08-13T07:45:29Z</time>
      </trkpt>
      <trkpt lat="42.49989" lon="-0.12071">
        <ele>778</ele>
        <time>2017-08-13T07:45:30Z</time>
      </trkpt>
      <trkpt lat="42.49987" lon="-0.12078">
        <ele>778</ele>
        <time>2017-08-13T07:45:33Z</time>
      </trkpt>
      <trkpt lat="42.49985" lon="-0.12081">
        <ele>778</ele>
        <time>2017-08-13T07:45:34Z</time>
      </trkpt>
      <trkpt lat="42.49983" lon="-0.12083">
        <ele>778.1</ele>
        <time>2017-08-13T07:45:35Z</time>
      </trkpt>
      <trkpt lat="42.49977" lon="-0.12087">
        <ele>778.4</ele>
        <time>2017-08-13T07:45:36Z</time>
      </trkpt>
      <trkpt lat="42.49975" lon="-0.12088">
        <ele>778.5</ele>
        <time>2017-08-13T07:45:37Z</time>
      </trkpt>
      <trkpt lat="42.4997" lon="-0.12091">
        <ele>778.7</ele>
        <time>2017-08-13T07:45:39Z</time>
      </trkpt>
      <trkpt lat="42.49967" lon="-0.12093">
        <ele>778.8</ele>
        <time>2017-08-13T07:45:41Z</time>
      </trkpt>
      <trkpt lat="42.49965" lon="-0.12095">
        <ele>779</ele>
        <time>2017-08-13T07:45:42Z</time>
      </trkpt>
      <trkpt lat="42.49963" lon="-0.12097">
        <ele>779.3</ele>
        <time>2017-08-13T07:45:43Z</time>
      </trkpt>
      <trkpt lat="42.4996" lon="-0.121">
        <ele>779.8</ele>
        <time>2017-08-13T07:45:44Z</time>
      </trkpt>
      <trkpt lat="42.49953" lon="-0.12104">
        <ele>780.9</ele>
        <time>2017-08-13T07:45:46Z</time>
      </trkpt>
      <trkpt lat="42.4995" lon="-0.12104">
        <ele>781.4</ele>
        <time>2017-08-13T07:45:48Z</time>
      </trkpt>
      <trkpt lat="42.49944" lon="-0.12106">
        <ele>782.7</ele>
        <time>2017-08-13T07:45:50Z</time>
      </trkpt>
      <trkpt lat="42.49942" lon="-0.12107">
        <ele>783</ele>
        <time>2017-08-13T07:45:51Z</time>
      </trkpt>
      <trkpt lat="42.49936" lon="-0.12108">
        <ele>783.9</ele>
        <time>2017-08-13T07:45:53Z</time>
      </trkpt>
      <trkpt lat="42.49933" lon="-0.12109">
        <ele>784.4</ele>
        <time>2017-08-13T07:45:55Z</time>
      </trkpt>
      <trkpt lat="42.4993" lon="-0.1211">
        <ele>785</ele>
        <time>2017-08-13T07:45:57Z</time>
      </trkpt>
      <trkpt lat="42.49924" lon="-0.12111">
        <ele>785.6</ele>
        <time>2017-08-13T07:45:59Z</time>
      </trkpt>
      <trkpt lat="42.49921" lon="-0.12111">
        <ele>785.9</ele>
        <time>2017-08-13T07:46:01Z</time>
      </trkpt>
      <trkpt lat="42.49917" lon="-0.12112">
        <ele>786.6</ele>
        <time>2017-08-13T07:46:03Z</time>
      </trkpt>
      <trkpt lat="42.49912" lon="-0.12112">
        <ele>787.2</ele>
        <time>2017-08-13T07:46:04Z</time>
      </trkpt>
      <trkpt lat="42.49907" lon="-0.12113">
        <ele>787.6</ele>
        <time>2017-08-13T07:46:07Z</time>
      </trkpt>
      <trkpt lat="42.499" lon="-0.12114">
        <ele>788.1</ele>
        <time>2017-08-13T07:46:09Z</time>
      </trkpt>
      <trkpt lat="42.49897" lon="-0.12114">
        <ele>788.3</ele>
        <time>2017-08-13T07:46:11Z</time>
      </trkpt>
      <trkpt lat="42.49892" lon="-0.12116">
        <ele>788.9</ele>
        <time>2017-08-13T07:46:13Z</time>
      </trkpt>
      <trkpt lat="42.49888" lon="-0.1212">
        <ele>789.3</ele>
        <time>2017-08-13T07:46:15Z</time>
      </trkpt>
      <trkpt lat="42.49883" lon="-0.12123">
        <ele>789.5</ele>
        <time>2017-08-13T07:46:17Z</time>
      </trkpt>
      <trkpt lat="42.49878" lon="-0.12127">
        <ele>789.7</ele>
        <time>2017-08-13T07:46:18Z</time>
      </trkpt>
      <trkpt lat="42.49875" lon="-0.1213">
        <ele>789.8</ele>
        <time>2017-08-13T07:46:20Z</time>
      </trkpt>
      <trkpt lat="42.49873" lon="-0.12132">
        <ele>789.9</ele>
        <time>2017-08-13T07:46:21Z</time>
      </trkpt>
      <trkpt lat="42.4987" lon="-0.12134">
        <ele>790</ele>
        <time>2017-08-13T07:46:22Z</time>
      </trkpt>
      <trkpt lat="42.49868" lon="-0.12136">
        <ele>790.1</ele>
        <time>2017-08-13T07:46:23Z</time>
      </trkpt>
      <trkpt lat="42.49865" lon="-0.12139">
        <ele>790.2</ele>
        <time>2017-08-13T07:46:24Z</time>
      </trkpt>
      <trkpt lat="42.49863" lon="-0.12141">
        <ele>790.3</ele>
        <time>2017-08-13T07:46:25Z</time>
      </trkpt>
      <trkpt lat="42.49861" lon="-0.12144">
        <ele>790.5</ele>
        <time>2017-08-13T07:46:26Z</time>
      </trkpt>
      <trkpt lat="42.49859" lon="-0.12146">
        <ele>790.8</ele>
        <time>2017-08-13T07:46:27Z</time>
      </trkpt>
      <trkpt lat="42.49856" lon="-0.12151">
        <ele>791.4</ele>
        <time>2017-08-13T07:46:29Z</time>
      </trkpt>
      <trkpt lat="42.49851" lon="-0.1216">
        <ele>792.1</ele>
        <time>2017-08-13T07:46:31Z</time>
      </trkpt>
      <trkpt lat="42.49849" lon="-0.12163">
        <ele>792.3</ele>
        <time>2017-08-13T07:46:32Z</time>
      </trkpt>
      <trkpt lat="42.49847" lon="-0.12169">
        <ele>792.6</ele>
        <time>2017-08-13T07:46:35Z</time>
      </trkpt>
      <trkpt lat="42.49843" lon="-0.12178">
        <ele>793.4</ele>
        <time>2017-08-13T07:46:37Z</time>
      </trkpt>
      <trkpt lat="42.49842" lon="-0.12181">
        <ele>793.8</ele>
        <time>2017-08-13T07:46:38Z</time>
      </trkpt>
      <trkpt lat="42.4984" lon="-0.12187">
        <ele>794.4</ele>
        <time>2017-08-13T07:46:40Z</time>
      </trkpt>
      <trkpt lat="42.49838" lon="-0.12194">
        <ele>794.9</ele>
        <time>2017-08-13T07:46:42Z</time>
      </trkpt>
      <trkpt lat="42.49836" lon="-0.12199">
        <ele>795.6</ele>
        <time>2017-08-13T07:46:45Z</time>
      </trkpt>
      <trkpt lat="42.49834" lon="-0.12208">
        <ele>796.5</ele>
        <time>2017-08-13T07:46:47Z</time>
      </trkpt>
      <trkpt lat="42.49834" lon="-0.12211">
        <ele>796.8</ele>
        <time>2017-08-13T07:46:48Z</time>
      </trkpt>
      <trkpt lat="42.49834" lon="-0.12217">
        <ele>797.2</ele>
        <time>2017-08-13T07:46:50Z</time>
      </trkpt>
      <trkpt lat="42.49834" lon="-0.12223">
        <ele>797.5</ele>
        <time>2017-08-13T07:46:53Z</time>
      </trkpt>
      <trkpt lat="42.49836" lon="-0.12228">
        <ele>797.9</ele>
        <time>2017-08-13T07:46:55Z</time>
      </trkpt>
      <trkpt lat="42.49838" lon="-0.12232">
        <ele>798.5</ele>
        <time>2017-08-13T07:46:56Z</time>
      </trkpt>
      <trkpt lat="42.49841" lon="-0.12237">
        <ele>798.9</ele>
        <time>2017-08-13T07:46:59Z</time>
      </trkpt>
      <trkpt lat="42.49846" lon="-0.12242">
        <ele>799.2</ele>
        <time>2017-08-13T07:47:01Z</time>
      </trkpt>
      <trkpt lat="42.49848" lon="-0.12244">
        <ele>799.4</ele>
        <time>2017-08-13T07:47:02Z</time>
      </trkpt>
      <trkpt lat="42.49852" lon="-0.12248">
        <ele>800.1</ele>
        <time>2017-08-13T07:47:04Z</time>
      </trkpt>
      <trkpt lat="42.49855" lon="-0.12251">
        <ele>800.8</ele>
        <time>2017-08-13T07:47:06Z</time>
      </trkpt>
      <trkpt lat="42.49859" lon="-0.12253">
        <ele>801.3</ele>
        <time>2017-08-13T07:47:08Z</time>
      </trkpt>
      <trkpt lat="42.49863" lon="-0.12256">
        <ele>801.6</ele>
        <time>2017-08-13T07:47:10Z</time>
      </trkpt>
      <trkpt lat="42.49867" lon="-0.12258">
        <ele>801.9</ele>
        <time>2017-08-13T07:47:12Z</time>
      </trkpt>
      <trkpt lat="42.49871" lon="-0.1226">
        <ele>802.3</ele>
        <time>2017-08-13T07:47:14Z</time>
      </trkpt>
      <trkpt lat="42.49876" lon="-0.12261">
        <ele>803.1</ele>
        <time>2017-08-13T07:47:16Z</time>
      </trkpt>
      <trkpt lat="42.4988" lon="-0.12262">
        <ele>803.7</ele>
        <time>2017-08-13T07:47:18Z</time>
      </trkpt>
      <trkpt lat="42.49883" lon="-0.12262">
        <ele>803.9</ele>
        <time>2017-08-13T07:47:20Z</time>
      </trkpt>
      <trkpt lat="42.49887" lon="-0.12262">
        <ele>804.2</ele>
        <time>2017-08-13T07:47:22Z</time>
      </trkpt>
      <trkpt lat="42.49891" lon="-0.12261">
        <ele>804.5</ele>
        <time>2017-08-13T07:47:24Z</time>
      </trkpt>
      <trkpt lat="42.49895" lon="-0.1226">
        <ele>805.1</ele>
        <time>2017-08-13T07:47:26Z</time>
      </trkpt>
      <trkpt lat="42.49898" lon="-0.12258">
        <ele>805.7</ele>
        <time>2017-08-13T07:47:28Z</time>
      </trkpt>
      <trkpt lat="42.49902" lon="-0.12255">
        <ele>806</ele>
        <time>2017-08-13T07:47:30Z</time>
      </trkpt>
      <trkpt lat="42.49905" lon="-0.12252">
        <ele>806.4</ele>
        <time>2017-08-13T07:47:32Z</time>
      </trkpt>
      <trkpt lat="42.49908" lon="-0.12249">
        <ele>806.8</ele>
        <time>2017-08-13T07:47:34Z</time>
      </trkpt>
      <trkpt lat="42.49911" lon="-0.12245">
        <ele>807.4</ele>
        <time>2017-08-13T07:47:36Z</time>
      </trkpt>
      <trkpt lat="42.49914" lon="-0.12241">
        <ele>808</ele>
        <time>2017-08-13T07:47:38Z</time>
      </trkpt>
      <trkpt lat="42.49917" lon="-0.12237">
        <ele>808.5</ele>
        <time>2017-08-13T07:47:40Z</time>
      </trkpt>
      <trkpt lat="42.4992" lon="-0.12232">
        <ele>808.7</ele>
        <time>2017-08-13T07:47:42Z</time>
      </trkpt>
      <trkpt lat="42.49924" lon="-0.12227">
        <ele>808.9</ele>
        <time>2017-08-13T07:47:44Z</time>
      </trkpt>
      <trkpt lat="42.49927" lon="-0.12223">
        <ele>809.1</ele>
        <time>2017-08-13T07:47:46Z</time>
      </trkpt>
      <trkpt lat="42.4993" lon="-0.12218">
        <ele>809.5</ele>
        <time>2017-08-13T07:47:48Z</time>
      </trkpt>
      <trkpt lat="42.49934" lon="-0.12214">
        <ele>810.1</ele>
        <time>2017-08-13T07:47:50Z</time>
      </trkpt>
      <trkpt lat="42.49938" lon="-0.12211">
        <ele>810.5</ele>
        <time>2017-08-13T07:47:52Z</time>
      </trkpt>
      <trkpt lat="42.49942" lon="-0.12208">
        <ele>810.8</ele>
        <time>2017-08-13T07:47:54Z</time>
      </trkpt>
      <trkpt lat="42.49946" lon="-0.12205">
        <ele>811</ele>
        <time>2017-08-13T07:47:56Z</time>
      </trkpt>
      <trkpt lat="42.4995" lon="-0.12201">
        <ele>811.2</ele>
        <time>2017-08-13T07:47:58Z</time>
      </trkpt>
      <trkpt lat="42.49954" lon="-0.12197">
        <ele>811.4</ele>
        <time>2017-08-13T07:48:00Z</time>
      </trkpt>
      <trkpt lat="42.49957" lon="-0.12193">
        <ele>811.6</ele>
        <time>2017-08-13T07:48:02Z</time>
      </trkpt>
      <trkpt lat="42.49961" lon="-0.12188">
        <ele>812.2</ele>
        <time>2017-08-13T07:48:04Z</time>
      </trkpt>
      <trkpt lat="42.49965" lon="-0.12185">
        <ele>812.8</ele>
        <time>2017-08-13T07:48:06Z</time>
      </trkpt>
      <trkpt lat="42.49967" lon="-0.12182">
        <ele>812.9</ele>
        <time>2017-08-13T07:48:07Z</time>
      </trkpt>
      <trkpt lat="42.4997" lon="-0.12179">
        <ele>813.1</ele>
        <time>2017-08-13T07:48:08Z</time>
      </trkpt>
      <trkpt lat="42.49972" lon="-0.12177">
        <ele>813.3</ele>
        <time>2017-08-13T07:48:09Z</time>
      </trkpt>
      <trkpt lat="42.49973" lon="-0.12174">
        <ele>813.5</ele>
        <time>2017-08-13T07:48:10Z</time>
      </trkpt>
      <trkpt lat="42.49975" lon="-0.12171">
        <ele>813.7</ele>
        <time>2017-08-13T07:48:11Z</time>
      </trkpt>
      <trkpt lat="42.49978" lon="-0.12165">
        <ele>814.4</ele>
        <time>2017-08-13T07:48:13Z</time>
      </trkpt>
      <trkpt lat="42.49982" lon="-0.1216">
        <ele>815</ele>
        <time>2017-08-13T07:48:15Z</time>
      </trkpt>
      <trkpt lat="42.49985" lon="-0.12155">
        <ele>815.3</ele>
        <time>2017-08-13T07:48:17Z</time>
      </trkpt>
      <trkpt lat="42.49989" lon="-0.1215">
        <ele>815.6</ele>
        <time>2017-08-13T07:48:19Z</time>
      </trkpt>
      <trkpt lat="42.49991" lon="-0.12147">
        <ele>815.7</ele>
        <time>2017-08-13T07:48:20Z</time>
      </trkpt>
      <trkpt lat="42.49993" lon="-0.12144">
        <ele>816</ele>
        <time>2017-08-13T07:48:21Z</time>
      </trkpt>
      <trkpt lat="42.49994" lon="-0.12142">
        <ele>816.2</ele>
        <time>2017-08-13T07:48:22Z</time>
      </trkpt>
      <trkpt lat="42.49998" lon="-0.12137">
        <ele>817</ele>
        <time>2017-08-13T07:48:24Z</time>
      </trkpt>
      <trkpt lat="42.50001" lon="-0.12132">
        <ele>817.9</ele>
        <time>2017-08-13T07:48:26Z</time>
      </trkpt>
      <trkpt lat="42.50005" lon="-0.12128">
        <ele>818.5</ele>
        <time>2017-08-13T07:48:28Z</time>
      </trkpt>
      <trkpt lat="42.50009" lon="-0.12125">
        <ele>819.4</ele>
        <time>2017-08-13T07:48:30Z</time>
      </trkpt>
      <trkpt lat="42.50014" lon="-0.12124">
        <ele>820</ele>
        <time>2017-08-13T07:48:32Z</time>
      </trkpt>
      <trkpt lat="42.50017" lon="-0.12125">
        <ele>820.3</ele>
        <time>2017-08-13T07:48:33Z</time>
      </trkpt>
      <trkpt lat="42.5002" lon="-0.12126">
        <ele>820.5</ele>
        <time>2017-08-13T07:48:34Z</time>
      </trkpt>
      <trkpt lat="42.50022" lon="-0.12128">
        <ele>820.7</ele>
        <time>2017-08-13T07:48:35Z</time>
      </trkpt>
      <trkpt lat="42.50024" lon="-0.1213">
        <ele>821.1</ele>
        <time>2017-08-13T07:48:36Z</time>
      </trkpt>
      <trkpt lat="42.50027" lon="-0.12132">
        <ele>821.5</ele>
        <time>2017-08-13T07:48:37Z</time>
      </trkpt>
      <trkpt lat="42.50029" lon="-0.12134">
        <ele>821.8</ele>
        <time>2017-08-13T07:48:38Z</time>
      </trkpt>
      <trkpt lat="42.50032" lon="-0.12137">
        <ele>822</ele>
        <time>2017-08-13T07:48:39Z</time>
      </trkpt>
      <trkpt lat="42.50034" lon="-0.12139">
        <ele>822.1</ele>
        <time>2017-08-13T07:48:40Z</time>
      </trkpt>
      <trkpt lat="42.50037" lon="-0.12142">
        <ele>822.2</ele>
        <time>2017-08-13T07:48:41Z</time>
      </trkpt>
      <trkpt lat="42.50039" lon="-0.12144">
        <ele>822.3</ele>
        <time>2017-08-13T07:48:42Z</time>
      </trkpt>
      <trkpt lat="42.50042" lon="-0.12146">
        <ele>822.5</ele>
        <time>2017-08-13T07:48:43Z</time>
      </trkpt>
      <trkpt lat="42.50046" lon="-0.12149">
        <ele>822.7</ele>
        <time>2017-08-13T07:48:45Z</time>
      </trkpt>
      <trkpt lat="42.5005" lon="-0.12152">
        <ele>823</ele>
        <time>2017-08-13T07:48:47Z</time>
      </trkpt>
      <trkpt lat="42.50055" lon="-0.12154">
        <ele>823.6</ele>
        <time>2017-08-13T07:48:49Z</time>
      </trkpt>
      <trkpt lat="42.50059" lon="-0.12154">
        <ele>823.9</ele>
        <time>2017-08-13T07:48:51Z</time>
      </trkpt>
      <trkpt lat="42.50062" lon="-0.12152">
        <ele>824</ele>
        <time>2017-08-13T07:48:59Z</time>
      </trkpt>
      <trkpt lat="42.50065" lon="-0.12152">
        <ele>824.1</ele>
        <time>2017-08-13T07:49:05Z</time>
      </trkpt>
      <trkpt lat="42.50063" lon="-0.12156">
        <ele>824.2</ele>
        <time>2017-08-13T07:50:09Z</time>
      </trkpt>
      <trkpt lat="42.50066" lon="-0.12156">
        <ele>824.3</ele>
        <time>2017-08-13T07:50:28Z</time>
      </trkpt>
      <trkpt lat="42.50069" lon="-0.12156">
        <ele>824.3</ele>
        <time>2017-08-13T07:50:30Z</time>
      </trkpt>
      <trkpt lat="42.50073" lon="-0.12158">
        <ele>824.4</ele>
        <time>2017-08-13T07:50:32Z</time>
      </trkpt>
      <trkpt lat="42.50076" lon="-0.1216">
        <ele>824.5</ele>
        <time>2017-08-13T07:50:33Z</time>
      </trkpt>
      <trkpt lat="42.50079" lon="-0.12161">
        <ele>824.5</ele>
        <time>2017-08-13T07:50:34Z</time>
      </trkpt>
      <trkpt lat="42.50082" lon="-0.12164">
        <ele>824.6</ele>
        <time>2017-08-13T07:50:35Z</time>
      </trkpt>
      <trkpt lat="42.50086" lon="-0.12166">
        <ele>824.6</ele>
        <time>2017-08-13T07:50:36Z</time>
      </trkpt>
      <trkpt lat="42.50089" lon="-0.12168">
        <ele>824.7</ele>
        <time>2017-08-13T07:50:37Z</time>
      </trkpt>
      <trkpt lat="42.50092" lon="-0.1217">
        <ele>824.8</ele>
        <time>2017-08-13T07:50:38Z</time>
      </trkpt>
      <trkpt lat="42.50096" lon="-0.12173">
        <ele>824.9</ele>
        <time>2017-08-13T07:50:39Z</time>
      </trkpt>
      <trkpt lat="42.50099" lon="-0.12176">
        <ele>825</ele>
        <time>2017-08-13T07:50:40Z</time>
      </trkpt>
      <trkpt lat="42.50102" lon="-0.12178">
        <ele>825</ele>
        <time>2017-08-13T07:50:41Z</time>
      </trkpt>
      <trkpt lat="42.50105" lon="-0.12181">
        <ele>825.2</ele>
        <time>2017-08-13T07:50:42Z</time>
      </trkpt>
      <trkpt lat="42.50108" lon="-0.12184">
        <ele>825.4</ele>
        <time>2017-08-13T07:50:43Z</time>
      </trkpt>
      <trkpt lat="42.5011" lon="-0.12187">
        <ele>825.7</ele>
        <time>2017-08-13T07:50:44Z</time>
      </trkpt>
      <trkpt lat="42.50112" lon="-0.12189">
        <ele>825.9</ele>
        <time>2017-08-13T07:50:45Z</time>
      </trkpt>
      <trkpt lat="42.50116" lon="-0.12194">
        <ele>826.2</ele>
        <time>2017-08-13T07:50:47Z</time>
      </trkpt>
      <trkpt lat="42.50119" lon="-0.12199">
        <ele>826.3</ele>
        <time>2017-08-13T07:50:49Z</time>
      </trkpt>
      <trkpt lat="42.50121" lon="-0.12202">
        <ele>826.4</ele>
        <time>2017-08-13T07:50:50Z</time>
      </trkpt>
      <trkpt lat="42.50123" lon="-0.12205">
        <ele>826.5</ele>
        <time>2017-08-13T07:50:51Z</time>
      </trkpt>
      <trkpt lat="42.50127" lon="-0.1221">
        <ele>826.6</ele>
        <time>2017-08-13T07:50:53Z</time>
      </trkpt>
      <trkpt lat="42.5013" lon="-0.12213">
        <ele>826.6</ele>
        <time>2017-08-13T07:50:54Z</time>
      </trkpt>
      <trkpt lat="42.50133" lon="-0.12217">
        <ele>826.7</ele>
        <time>2017-08-13T07:50:55Z</time>
      </trkpt>
      <trkpt lat="42.50136" lon="-0.1222">
        <ele>826.8</ele>
        <time>2017-08-13T07:50:56Z</time>
      </trkpt>
      <trkpt lat="42.50139" lon="-0.12223">
        <ele>826.8</ele>
        <time>2017-08-13T07:50:57Z</time>
      </trkpt>
      <trkpt lat="42.50143" lon="-0.12227">
        <ele>826.9</ele>
        <time>2017-08-13T07:50:58Z</time>
      </trkpt>
      <trkpt lat="42.50148" lon="-0.1223">
        <ele>827</ele>
        <time>2017-08-13T07:50:59Z</time>
      </trkpt>
      <trkpt lat="42.50152" lon="-0.12233">
        <ele>827.1</ele>
        <time>2017-08-13T07:51:00Z</time>
      </trkpt>
      <trkpt lat="42.50157" lon="-0.12236">
        <ele>827.1</ele>
        <time>2017-08-13T07:51:01Z</time>
      </trkpt>
      <trkpt lat="42.50161" lon="-0.1224">
        <ele>827.2</ele>
        <time>2017-08-13T07:51:02Z</time>
      </trkpt>
      <trkpt lat="42.50165" lon="-0.12244">
        <ele>827.3</ele>
        <time>2017-08-13T07:51:03Z</time>
      </trkpt>
      <trkpt lat="42.50169" lon="-0.12248">
        <ele>827.4</ele>
        <time>2017-08-13T07:51:04Z</time>
      </trkpt>
      <trkpt lat="42.50174" lon="-0.12251">
        <ele>827.8</ele>
        <time>2017-08-13T07:51:05Z</time>
      </trkpt>
      <trkpt lat="42.50178" lon="-0.12255">
        <ele>828.1</ele>
        <time>2017-08-13T07:51:06Z</time>
      </trkpt>
      <trkpt lat="42.50181" lon="-0.12257">
        <ele>828.4</ele>
        <time>2017-08-13T07:51:07Z</time>
      </trkpt>
      <trkpt lat="42.50185" lon="-0.1226">
        <ele>828.7</ele>
        <time>2017-08-13T07:51:08Z</time>
      </trkpt>
      <trkpt lat="42.50187" lon="-0.12262">
        <ele>828.8</ele>
        <time>2017-08-13T07:51:09Z</time>
      </trkpt>
      <trkpt lat="42.50191" lon="-0.12266">
        <ele>828.9</ele>
        <time>2017-08-13T07:51:11Z</time>
      </trkpt>
      <trkpt lat="42.50193" lon="-0.12268">
        <ele>828.9</ele>
        <time>2017-08-13T07:51:12Z</time>
      </trkpt>
      <trkpt lat="42.50196" lon="-0.12274">
        <ele>829</ele>
        <time>2017-08-13T07:51:14Z</time>
      </trkpt>
      <trkpt lat="42.50199" lon="-0.12279">
        <ele>829</ele>
        <time>2017-08-13T07:51:16Z</time>
      </trkpt>
      <trkpt lat="42.50201" lon="-0.12281">
        <ele>829.1</ele>
        <time>2017-08-13T07:51:17Z</time>
      </trkpt>
      <trkpt lat="42.50204" lon="-0.12284">
        <ele>829.1</ele>
        <time>2017-08-13T07:51:18Z</time>
      </trkpt>
      <trkpt lat="42.50206" lon="-0.12286">
        <ele>829.1</ele>
        <time>2017-08-13T07:51:19Z</time>
      </trkpt>
      <trkpt lat="42.50208" lon="-0.12289">
        <ele>829.1</ele>
        <time>2017-08-13T07:51:20Z</time>
      </trkpt>
      <trkpt lat="42.50211" lon="-0.12291">
        <ele>829.2</ele>
        <time>2017-08-13T07:51:21Z</time>
      </trkpt>
      <trkpt lat="42.50214" lon="-0.12297">
        <ele>829.2</ele>
        <time>2017-08-13T07:51:23Z</time>
      </trkpt>
      <trkpt lat="42.50217" lon="-0.123">
        <ele>829.2</ele>
        <time>2017-08-13T07:51:24Z</time>
      </trkpt>
      <trkpt lat="42.5022" lon="-0.12303">
        <ele>829.2</ele>
        <time>2017-08-13T07:51:25Z</time>
      </trkpt>
      <trkpt lat="42.50223" lon="-0.12306">
        <ele>829.2</ele>
        <time>2017-08-13T07:51:26Z</time>
      </trkpt>
      <trkpt lat="42.50227" lon="-0.12309">
        <ele>829.3</ele>
        <time>2017-08-13T07:51:27Z</time>
      </trkpt>
      <trkpt lat="42.5023" lon="-0.12312">
        <ele>829.3</ele>
        <time>2017-08-13T07:51:28Z</time>
      </trkpt>
      <trkpt lat="42.50234" lon="-0.12315">
        <ele>829.3</ele>
        <time>2017-08-13T07:51:29Z</time>
      </trkpt>
      <trkpt lat="42.50237" lon="-0.12318">
        <ele>829.3</ele>
        <time>2017-08-13T07:51:30Z</time>
      </trkpt>
      <trkpt lat="42.5024" lon="-0.12322">
        <ele>829.3</ele>
        <time>2017-08-13T07:51:31Z</time>
      </trkpt>
      <trkpt lat="42.50244" lon="-0.12326">
        <ele>829.3</ele>
        <time>2017-08-13T07:51:32Z</time>
      </trkpt>
      <trkpt lat="42.50246" lon="-0.12329">
        <ele>829.3</ele>
        <time>2017-08-13T07:51:33Z</time>
      </trkpt>
      <trkpt lat="42.50248" lon="-0.12333">
        <ele>829.3</ele>
        <time>2017-08-13T07:51:34Z</time>
      </trkpt>
      <trkpt lat="42.50251" lon="-0.12336">
        <ele>829.3</ele>
        <time>2017-08-13T07:51:35Z</time>
      </trkpt>
      <trkpt lat="42.50254" lon="-0.1234">
        <ele>829.3</ele>
        <time>2017-08-13T07:51:36Z</time>
      </trkpt>
      <trkpt lat="42.50256" lon="-0.12344">
        <ele>829.4</ele>
        <time>2017-08-13T07:51:37Z</time>
      </trkpt>
      <trkpt lat="42.50259" lon="-0.12348">
        <ele>829.4</ele>
        <time>2017-08-13T07:51:38Z</time>
      </trkpt>
      <trkpt lat="42.50262" lon="-0.12353">
        <ele>829.4</ele>
        <time>2017-08-13T07:51:39Z</time>
      </trkpt>
      <trkpt lat="42.50265" lon="-0.12357">
        <ele>829.4</ele>
        <time>2017-08-13T07:51:40Z</time>
      </trkpt>
      <trkpt lat="42.50267" lon="-0.12362">
        <ele>829.4</ele>
        <time>2017-08-13T07:51:41Z</time>
      </trkpt>
      <trkpt lat="42.5027" lon="-0.12366">
        <ele>829.4</ele>
        <time>2017-08-13T07:51:42Z</time>
      </trkpt>
      <trkpt lat="42.50273" lon="-0.1237">
        <ele>829.4</ele>
        <time>2017-08-13T07:51:43Z</time>
      </trkpt>
      <trkpt lat="42.50276" lon="-0.12375">
        <ele>829.5</ele>
        <time>2017-08-13T07:51:44Z</time>
      </trkpt>
      <trkpt lat="42.50279" lon="-0.12379">
        <ele>829.5</ele>
        <time>2017-08-13T07:51:45Z</time>
      </trkpt>
      <trkpt lat="42.50282" lon="-0.12384">
        <ele>829.5</ele>
        <time>2017-08-13T07:51:46Z</time>
      </trkpt>
      <trkpt lat="42.50285" lon="-0.12388">
        <ele>829.5</ele>
        <time>2017-08-13T07:51:47Z</time>
      </trkpt>
      <trkpt lat="42.50288" lon="-0.12393">
        <ele>829.5</ele>
        <time>2017-08-13T07:51:48Z</time>
      </trkpt>
      <trkpt lat="42.50291" lon="-0.12398">
        <ele>829.5</ele>
        <time>2017-08-13T07:51:49Z</time>
      </trkpt>
      <trkpt lat="42.50294" lon="-0.12403">
        <ele>829.6</ele>
        <time>2017-08-13T07:51:50Z</time>
      </trkpt>
      <trkpt lat="42.50297" lon="-0.12408">
        <ele>829.6</ele>
        <time>2017-08-13T07:51:51Z</time>
      </trkpt>
      <trkpt lat="42.503" lon="-0.12412">
        <ele>829.6</ele>
        <time>2017-08-13T07:51:52Z</time>
      </trkpt>
      <trkpt lat="42.50303" lon="-0.12417">
        <ele>829.7</ele>
        <time>2017-08-13T07:51:53Z</time>
      </trkpt>
      <trkpt lat="42.50306" lon="-0.12422">
        <ele>829.7</ele>
        <time>2017-08-13T07:51:54Z</time>
      </trkpt>
      <trkpt lat="42.50309" lon="-0.12426">
        <ele>829.7</ele>
        <time>2017-08-13T07:51:55Z</time>
      </trkpt>
      <trkpt lat="42.50312" lon="-0.12431">
        <ele>829.8</ele>
        <time>2017-08-13T07:51:56Z</time>
      </trkpt>
      <trkpt lat="42.50315" lon="-0.12435">
        <ele>829.9</ele>
        <time>2017-08-13T07:51:57Z</time>
      </trkpt>
      <trkpt lat="42.50318" lon="-0.12439">
        <ele>829.9</ele>
        <time>2017-08-13T07:51:58Z</time>
      </trkpt>
      <trkpt lat="42.50321" lon="-0.12443">
        <ele>830</ele>
        <time>2017-08-13T07:51:59Z</time>
      </trkpt>
      <trkpt lat="42.50324" lon="-0.12448">
        <ele>830</ele>
        <time>2017-08-13T07:52:00Z</time>
      </trkpt>
      <trkpt lat="42.50326" lon="-0.12452">
        <ele>830.1</ele>
        <time>2017-08-13T07:52:01Z</time>
      </trkpt>
      <trkpt lat="42.50329" lon="-0.12456">
        <ele>830.2</ele>
        <time>2017-08-13T07:52:02Z</time>
      </trkpt>
      <trkpt lat="42.50331" lon="-0.1246">
        <ele>830.4</ele>
        <time>2017-08-13T07:52:03Z</time>
      </trkpt>
      <trkpt lat="42.50334" lon="-0.12464">
        <ele>830.6</ele>
        <time>2017-08-13T07:52:04Z</time>
      </trkpt>
      <trkpt lat="42.50336" lon="-0.12468">
        <ele>831</ele>
        <time>2017-08-13T07:52:05Z</time>
      </trkpt>
      <trkpt lat="42.50339" lon="-0.12472">
        <ele>831.3</ele>
        <time>2017-08-13T07:52:06Z</time>
      </trkpt>
      <trkpt lat="42.50341" lon="-0.12476">
        <ele>831.5</ele>
        <time>2017-08-13T07:52:07Z</time>
      </trkpt>
      <trkpt lat="42.50343" lon="-0.1248">
        <ele>831.7</ele>
        <time>2017-08-13T07:52:08Z</time>
      </trkpt>
      <trkpt lat="42.50346" lon="-0.12484">
        <ele>831.8</ele>
        <time>2017-08-13T07:52:09Z</time>
      </trkpt>
      <trkpt lat="42.50348" lon="-0.12488">
        <ele>831.9</ele>
        <time>2017-08-13T07:52:10Z</time>
      </trkpt>
      <trkpt lat="42.5035" lon="-0.12492">
        <ele>832</ele>
        <time>2017-08-13T07:52:11Z</time>
      </trkpt>
      <trkpt lat="42.50352" lon="-0.12496">
        <ele>832.1</ele>
        <time>2017-08-13T07:52:12Z</time>
      </trkpt>
      <trkpt lat="42.50355" lon="-0.12499">
        <ele>832.1</ele>
        <time>2017-08-13T07:52:13Z</time>
      </trkpt>
      <trkpt lat="42.50357" lon="-0.12503">
        <ele>832.2</ele>
        <time>2017-08-13T07:52:14Z</time>
      </trkpt>
      <trkpt lat="42.50359" lon="-0.12506">
        <ele>832.3</ele>
        <time>2017-08-13T07:52:15Z</time>
      </trkpt>
      <trkpt lat="42.50362" lon="-0.1251">
        <ele>832.4</ele>
        <time>2017-08-13T07:52:16Z</time>
      </trkpt>
      <trkpt lat="42.50364" lon="-0.12514">
        <ele>832.5</ele>
        <time>2017-08-13T07:52:17Z</time>
      </trkpt>
      <trkpt lat="42.50366" lon="-0.12518">
        <ele>832.7</ele>
        <time>2017-08-13T07:52:18Z</time>
      </trkpt>
      <trkpt lat="42.50368" lon="-0.12521">
        <ele>833</ele>
        <time>2017-08-13T07:52:19Z</time>
      </trkpt>
      <trkpt lat="42.5037" lon="-0.12525">
        <ele>833.3</ele>
        <time>2017-08-13T07:52:20Z</time>
      </trkpt>
      <trkpt lat="42.50372" lon="-0.12529">
        <ele>833.6</ele>
        <time>2017-08-13T07:52:21Z</time>
      </trkpt>
      <trkpt lat="42.50374" lon="-0.12533">
        <ele>834</ele>
        <time>2017-08-13T07:52:22Z</time>
      </trkpt>
      <trkpt lat="42.50376" lon="-0.12537">
        <ele>834.2</ele>
        <time>2017-08-13T07:52:23Z</time>
      </trkpt>
      <trkpt lat="42.50378" lon="-0.12541">
        <ele>834.3</ele>
        <time>2017-08-13T07:52:24Z</time>
      </trkpt>
      <trkpt lat="42.5038" lon="-0.12545">
        <ele>834.4</ele>
        <time>2017-08-13T07:52:25Z</time>
      </trkpt>
      <trkpt lat="42.50382" lon="-0.1255">
        <ele>834.5</ele>
        <time>2017-08-13T07:52:26Z</time>
      </trkpt>
      <trkpt lat="42.50384" lon="-0.12554">
        <ele>834.6</ele>
        <time>2017-08-13T07:52:27Z</time>
      </trkpt>
      <trkpt lat="42.50385" lon="-0.12558">
        <ele>834.7</ele>
        <time>2017-08-13T07:52:28Z</time>
      </trkpt>
      <trkpt lat="42.50387" lon="-0.12562">
        <ele>834.9</ele>
        <time>2017-08-13T07:52:29Z</time>
      </trkpt>
      <trkpt lat="42.50388" lon="-0.12566">
        <ele>835</ele>
        <time>2017-08-13T07:52:30Z</time>
      </trkpt>
      <trkpt lat="42.5039" lon="-0.1257">
        <ele>835.2</ele>
        <time>2017-08-13T07:52:31Z</time>
      </trkpt>
      <trkpt lat="42.50391" lon="-0.12574">
        <ele>835.5</ele>
        <time>2017-08-13T07:52:32Z</time>
      </trkpt>
      <trkpt lat="42.50393" lon="-0.12579">
        <ele>835.8</ele>
        <time>2017-08-13T07:52:33Z</time>
      </trkpt>
      <trkpt lat="42.50395" lon="-0.12584">
        <ele>836.1</ele>
        <time>2017-08-13T07:52:34Z</time>
      </trkpt>
      <trkpt lat="42.50397" lon="-0.12588">
        <ele>836.3</ele>
        <time>2017-08-13T07:52:35Z</time>
      </trkpt>
      <trkpt lat="42.50399" lon="-0.12592">
        <ele>836.4</ele>
        <time>2017-08-13T07:52:36Z</time>
      </trkpt>
      <trkpt lat="42.50401" lon="-0.12595">
        <ele>836.4</ele>
        <time>2017-08-13T07:52:37Z</time>
      </trkpt>
      <trkpt lat="42.50402" lon="-0.12599">
        <ele>836.5</ele>
        <time>2017-08-13T07:52:38Z</time>
      </trkpt>
      <trkpt lat="42.50405" lon="-0.12604">
        <ele>836.7</ele>
        <time>2017-08-13T07:52:39Z</time>
      </trkpt>
      <trkpt lat="42.50407" lon="-0.12608">
        <ele>836.8</ele>
        <time>2017-08-13T07:52:40Z</time>
      </trkpt>
      <trkpt lat="42.5041" lon="-0.12613">
        <ele>836.9</ele>
        <time>2017-08-13T07:52:41Z</time>
      </trkpt>
      <trkpt lat="42.50413" lon="-0.12617">
        <ele>837.1</ele>
        <time>2017-08-13T07:52:42Z</time>
      </trkpt>
      <trkpt lat="42.50416" lon="-0.12621">
        <ele>837.3</ele>
        <time>2017-08-13T07:52:43Z</time>
      </trkpt>
      <trkpt lat="42.50418" lon="-0.12625">
        <ele>837.4</ele>
        <time>2017-08-13T07:52:44Z</time>
      </trkpt>
      <trkpt lat="42.50421" lon="-0.12628">
        <ele>837.6</ele>
        <time>2017-08-13T07:52:45Z</time>
      </trkpt>
      <trkpt lat="42.50423" lon="-0.12632">
        <ele>837.9</ele>
        <time>2017-08-13T07:52:46Z</time>
      </trkpt>
      <trkpt lat="42.50426" lon="-0.12635">
        <ele>838.2</ele>
        <time>2017-08-13T07:52:47Z</time>
      </trkpt>
      <trkpt lat="42.50428" lon="-0.12639">
        <ele>838.5</ele>
        <time>2017-08-13T07:52:48Z</time>
      </trkpt>
      <trkpt lat="42.50431" lon="-0.12644">
        <ele>838.6</ele>
        <time>2017-08-13T07:52:49Z</time>
      </trkpt>
      <trkpt lat="42.50433" lon="-0.12648">
        <ele>838.8</ele>
        <time>2017-08-13T07:52:50Z</time>
      </trkpt>
      <trkpt lat="42.50436" lon="-0.12652">
        <ele>838.9</ele>
        <time>2017-08-13T07:52:51Z</time>
      </trkpt>
      <trkpt lat="42.50438" lon="-0.12656">
        <ele>838.9</ele>
        <time>2017-08-13T07:52:52Z</time>
      </trkpt>
      <trkpt lat="42.50441" lon="-0.1266">
        <ele>839</ele>
        <time>2017-08-13T07:52:53Z</time>
      </trkpt>
      <trkpt lat="42.50444" lon="-0.12665">
        <ele>839.1</ele>
        <time>2017-08-13T07:52:54Z</time>
      </trkpt>
      <trkpt lat="42.50447" lon="-0.12668">
        <ele>839.2</ele>
        <time>2017-08-13T07:52:55Z</time>
      </trkpt>
      <trkpt lat="42.5045" lon="-0.12671">
        <ele>839.2</ele>
        <time>2017-08-13T07:52:56Z</time>
      </trkpt>
      <trkpt lat="42.50453" lon="-0.12675">
        <ele>839.3</ele>
        <time>2017-08-13T07:52:57Z</time>
      </trkpt>
      <trkpt lat="42.50456" lon="-0.12679">
        <ele>839.4</ele>
        <time>2017-08-13T07:52:58Z</time>
      </trkpt>
      <trkpt lat="42.50458" lon="-0.12682">
        <ele>839.5</ele>
        <time>2017-08-13T07:52:59Z</time>
      </trkpt>
      <trkpt lat="42.50461" lon="-0.12687">
        <ele>839.7</ele>
        <time>2017-08-13T07:53:00Z</time>
      </trkpt>
      <trkpt lat="42.50463" lon="-0.12691">
        <ele>839.8</ele>
        <time>2017-08-13T07:53:01Z</time>
      </trkpt>
      <trkpt lat="42.50466" lon="-0.12694">
        <ele>840.1</ele>
        <time>2017-08-13T07:53:02Z</time>
      </trkpt>
      <trkpt lat="42.50468" lon="-0.12698">
        <ele>840.3</ele>
        <time>2017-08-13T07:53:03Z</time>
      </trkpt>
      <trkpt lat="42.50471" lon="-0.12702">
        <ele>840.6</ele>
        <time>2017-08-13T07:53:04Z</time>
      </trkpt>
      <trkpt lat="42.50475" lon="-0.12706">
        <ele>840.9</ele>
        <time>2017-08-13T07:53:05Z</time>
      </trkpt>
      <trkpt lat="42.50478" lon="-0.12709">
        <ele>841.1</ele>
        <time>2017-08-13T07:53:06Z</time>
      </trkpt>
      <trkpt lat="42.50482" lon="-0.12712">
        <ele>841.2</ele>
        <time>2017-08-13T07:53:07Z</time>
      </trkpt>
      <trkpt lat="42.50486" lon="-0.12715">
        <ele>841.4</ele>
        <time>2017-08-13T07:53:08Z</time>
      </trkpt>
      <trkpt lat="42.50489" lon="-0.12718">
        <ele>841.5</ele>
        <time>2017-08-13T07:53:09Z</time>
      </trkpt>
      <trkpt lat="42.50493" lon="-0.12721">
        <ele>841.7</ele>
        <time>2017-08-13T07:53:10Z</time>
      </trkpt>
      <trkpt lat="42.50497" lon="-0.12724">
        <ele>841.9</ele>
        <time>2017-08-13T07:53:11Z</time>
      </trkpt>
      <trkpt lat="42.50501" lon="-0.12727">
        <ele>842.1</ele>
        <time>2017-08-13T07:53:12Z</time>
      </trkpt>
      <trkpt lat="42.50504" lon="-0.12731">
        <ele>842.3</ele>
        <time>2017-08-13T07:53:13Z</time>
      </trkpt>
      <trkpt lat="42.50507" lon="-0.12734">
        <ele>842.6</ele>
        <time>2017-08-13T07:53:14Z</time>
      </trkpt>
      <trkpt lat="42.5051" lon="-0.12738">
        <ele>842.9</ele>
        <time>2017-08-13T07:53:15Z</time>
      </trkpt>
      <trkpt lat="42.50513" lon="-0.12742">
        <ele>843.1</ele>
        <time>2017-08-13T07:53:16Z</time>
      </trkpt>
      <trkpt lat="42.50517" lon="-0.12745">
        <ele>843.1</ele>
        <time>2017-08-13T07:53:17Z</time>
      </trkpt>
      <trkpt lat="42.50521" lon="-0.12749">
        <ele>843.2</ele>
        <time>2017-08-13T07:53:18Z</time>
      </trkpt>
      <trkpt lat="42.50524" lon="-0.12751">
        <ele>843.3</ele>
        <time>2017-08-13T07:53:19Z</time>
      </trkpt>
      <trkpt lat="42.50528" lon="-0.12754">
        <ele>843.3</ele>
        <time>2017-08-13T07:53:20Z</time>
      </trkpt>
      <trkpt lat="42.50531" lon="-0.12756">
        <ele>843.4</ele>
        <time>2017-08-13T07:53:21Z</time>
      </trkpt>
      <trkpt lat="42.50534" lon="-0.12759">
        <ele>843.4</ele>
        <time>2017-08-13T07:53:22Z</time>
      </trkpt>
      <trkpt lat="42.50538" lon="-0.12761">
        <ele>843.5</ele>
        <time>2017-08-13T07:53:23Z</time>
      </trkpt>
      <trkpt lat="42.50542" lon="-0.12763">
        <ele>843.5</ele>
        <time>2017-08-13T07:53:24Z</time>
      </trkpt>
      <trkpt lat="42.50545" lon="-0.12765">
        <ele>843.5</ele>
        <time>2017-08-13T07:53:25Z</time>
      </trkpt>
      <trkpt lat="42.50549" lon="-0.12767">
        <ele>843.5</ele>
        <time>2017-08-13T07:53:26Z</time>
      </trkpt>
      <trkpt lat="42.50553" lon="-0.12769">
        <ele>843.6</ele>
        <time>2017-08-13T07:53:27Z</time>
      </trkpt>
      <trkpt lat="42.50557" lon="-0.12772">
        <ele>843.6</ele>
        <time>2017-08-13T07:53:28Z</time>
      </trkpt>
      <trkpt lat="42.5056" lon="-0.12774">
        <ele>843.6</ele>
        <time>2017-08-13T07:53:29Z</time>
      </trkpt>
      <trkpt lat="42.50563" lon="-0.12775">
        <ele>843.7</ele>
        <time>2017-08-13T07:53:30Z</time>
      </trkpt>
      <trkpt lat="42.50567" lon="-0.12778">
        <ele>843.7</ele>
        <time>2017-08-13T07:53:31Z</time>
      </trkpt>
      <trkpt lat="42.50571" lon="-0.1278">
        <ele>843.7</ele>
        <time>2017-08-13T07:53:32Z</time>
      </trkpt>
      <trkpt lat="42.50575" lon="-0.12782">
        <ele>843.7</ele>
        <time>2017-08-13T07:53:33Z</time>
      </trkpt>
      <trkpt lat="42.50579" lon="-0.12784">
        <ele>843.7</ele>
        <time>2017-08-13T07:53:34Z</time>
      </trkpt>
      <trkpt lat="42.50583" lon="-0.12786">
        <ele>843.7</ele>
        <time>2017-08-13T07:53:35Z</time>
      </trkpt>
      <trkpt lat="42.50587" lon="-0.12788">
        <ele>843.7</ele>
        <time>2017-08-13T07:53:36Z</time>
      </trkpt>
      <trkpt lat="42.50591" lon="-0.12791">
        <ele>843.8</ele>
        <time>2017-08-13T07:53:37Z</time>
      </trkpt>
      <trkpt lat="42.50595" lon="-0.12794">
        <ele>843.8</ele>
        <time>2017-08-13T07:53:38Z</time>
      </trkpt>
      <trkpt lat="42.50599" lon="-0.12798">
        <ele>843.8</ele>
        <time>2017-08-13T07:53:39Z</time>
      </trkpt>
      <trkpt lat="42.50602" lon="-0.12801">
        <ele>843.8</ele>
        <time>2017-08-13T07:53:40Z</time>
      </trkpt>
      <trkpt lat="42.50604" lon="-0.12806">
        <ele>843.8</ele>
        <time>2017-08-13T07:53:41Z</time>
      </trkpt>
      <trkpt lat="42.50606" lon="-0.12811">
        <ele>843.8</ele>
        <time>2017-08-13T07:53:42Z</time>
      </trkpt>
      <trkpt lat="42.50608" lon="-0.12816">
        <ele>843.9</ele>
        <time>2017-08-13T07:53:43Z</time>
      </trkpt>
      <trkpt lat="42.50609" lon="-0.12821">
        <ele>843.9</ele>
        <time>2017-08-13T07:53:44Z</time>
      </trkpt>
      <trkpt lat="42.50611" lon="-0.12825">
        <ele>843.9</ele>
        <time>2017-08-13T07:53:45Z</time>
      </trkpt>
      <trkpt lat="42.50612" lon="-0.1283">
        <ele>843.9</ele>
        <time>2017-08-13T07:53:46Z</time>
      </trkpt>
      <trkpt lat="42.50615" lon="-0.12835">
        <ele>844</ele>
        <time>2017-08-13T07:53:47Z</time>
      </trkpt>
      <trkpt lat="42.50618" lon="-0.12839">
        <ele>844</ele>
        <time>2017-08-13T07:53:48Z</time>
      </trkpt>
      <trkpt lat="42.50621" lon="-0.12841">
        <ele>844.1</ele>
        <time>2017-08-13T07:53:49Z</time>
      </trkpt>
      <trkpt lat="42.50624" lon="-0.12843">
        <ele>844.1</ele>
        <time>2017-08-13T07:53:50Z</time>
      </trkpt>
      <trkpt lat="42.50628" lon="-0.12846">
        <ele>844.2</ele>
        <time>2017-08-13T07:53:51Z</time>
      </trkpt>
      <trkpt lat="42.50631" lon="-0.12848">
        <ele>844.4</ele>
        <time>2017-08-13T07:53:52Z</time>
      </trkpt>
      <trkpt lat="42.50634" lon="-0.12851">
        <ele>844.5</ele>
        <time>2017-08-13T07:53:53Z</time>
      </trkpt>
      <trkpt lat="42.50637" lon="-0.12855">
        <ele>844.6</ele>
        <time>2017-08-13T07:53:54Z</time>
      </trkpt>
      <trkpt lat="42.5064" lon="-0.12859">
        <ele>844.8</ele>
        <time>2017-08-13T07:53:55Z</time>
      </trkpt>
      <trkpt lat="42.50643" lon="-0.12863">
        <ele>845.1</ele>
        <time>2017-08-13T07:53:56Z</time>
      </trkpt>
      <trkpt lat="42.50645" lon="-0.12867">
        <ele>845.5</ele>
        <time>2017-08-13T07:53:57Z</time>
      </trkpt>
      <trkpt lat="42.50648" lon="-0.12871">
        <ele>845.7</ele>
        <time>2017-08-13T07:53:58Z</time>
      </trkpt>
      <trkpt lat="42.5065" lon="-0.12876">
        <ele>845.9</ele>
        <time>2017-08-13T07:53:59Z</time>
      </trkpt>
      <trkpt lat="42.50652" lon="-0.12881">
        <ele>846</ele>
        <time>2017-08-13T07:54:00Z</time>
      </trkpt>
      <trkpt lat="42.50655" lon="-0.12885">
        <ele>846.1</ele>
        <time>2017-08-13T07:54:01Z</time>
      </trkpt>
      <trkpt lat="42.50657" lon="-0.12889">
        <ele>846.2</ele>
        <time>2017-08-13T07:54:02Z</time>
      </trkpt>
      <trkpt lat="42.50659" lon="-0.12893">
        <ele>846.3</ele>
        <time>2017-08-13T07:54:03Z</time>
      </trkpt>
      <trkpt lat="42.50662" lon="-0.12897">
        <ele>846.4</ele>
        <time>2017-08-13T07:54:04Z</time>
      </trkpt>
      <trkpt lat="42.50665" lon="-0.12901">
        <ele>846.5</ele>
        <time>2017-08-13T07:54:05Z</time>
      </trkpt>
      <trkpt lat="42.50667" lon="-0.12904">
        <ele>846.6</ele>
        <time>2017-08-13T07:54:06Z</time>
      </trkpt>
      <trkpt lat="42.5067" lon="-0.12908">
        <ele>846.7</ele>
        <time>2017-08-13T07:54:07Z</time>
      </trkpt>
      <trkpt lat="42.50671" lon="-0.12912">
        <ele>846.7</ele>
        <time>2017-08-13T07:54:08Z</time>
      </trkpt>
      <trkpt lat="42.50673" lon="-0.12916">
        <ele>846.8</ele>
        <time>2017-08-13T07:54:09Z</time>
      </trkpt>
      <trkpt lat="42.50675" lon="-0.1292">
        <ele>846.9</ele>
        <time>2017-08-13T07:54:10Z</time>
      </trkpt>
      <trkpt lat="42.50677" lon="-0.12924">
        <ele>847</ele>
        <time>2017-08-13T07:54:11Z</time>
      </trkpt>
      <trkpt lat="42.50679" lon="-0.12929">
        <ele>847.1</ele>
        <time>2017-08-13T07:54:12Z</time>
      </trkpt>
      <trkpt lat="42.50682" lon="-0.12933">
        <ele>847.3</ele>
        <time>2017-08-13T07:54:13Z</time>
      </trkpt>
      <trkpt lat="42.50684" lon="-0.12937">
        <ele>847.5</ele>
        <time>2017-08-13T07:54:14Z</time>
      </trkpt>
      <trkpt lat="42.50687" lon="-0.12941">
        <ele>847.8</ele>
        <time>2017-08-13T07:54:15Z</time>
      </trkpt>
      <trkpt lat="42.50689" lon="-0.12945">
        <ele>848.1</ele>
        <time>2017-08-13T07:54:16Z</time>
      </trkpt>
      <trkpt lat="42.50692" lon="-0.12949">
        <ele>848.3</ele>
        <time>2017-08-13T07:54:17Z</time>
      </trkpt>
      <trkpt lat="42.50694" lon="-0.12954">
        <ele>848.4</ele>
        <time>2017-08-13T07:54:18Z</time>
      </trkpt>
      <trkpt lat="42.50696" lon="-0.12958">
        <ele>848.5</ele>
        <time>2017-08-13T07:54:19Z</time>
      </trkpt>
      <trkpt lat="42.50698" lon="-0.12961">
        <ele>848.6</ele>
        <time>2017-08-13T07:54:20Z</time>
      </trkpt>
      <trkpt lat="42.50701" lon="-0.12964">
        <ele>848.7</ele>
        <time>2017-08-13T07:54:21Z</time>
      </trkpt>
      <trkpt lat="42.50704" lon="-0.12967">
        <ele>848.8</ele>
        <time>2017-08-13T07:54:22Z</time>
      </trkpt>
      <trkpt lat="42.50707" lon="-0.12969">
        <ele>848.9</ele>
        <time>2017-08-13T07:54:23Z</time>
      </trkpt>
      <trkpt lat="42.5071" lon="-0.12971">
        <ele>849</ele>
        <time>2017-08-13T07:54:24Z</time>
      </trkpt>
      <trkpt lat="42.50714" lon="-0.12973">
        <ele>849.1</ele>
        <time>2017-08-13T07:54:25Z</time>
      </trkpt>
      <trkpt lat="42.50718" lon="-0.12974">
        <ele>849.3</ele>
        <time>2017-08-13T07:54:26Z</time>
      </trkpt>
      <trkpt lat="42.50722" lon="-0.12976">
        <ele>849.5</ele>
        <time>2017-08-13T07:54:27Z</time>
      </trkpt>
      <trkpt lat="42.50726" lon="-0.12977">
        <ele>849.8</ele>
        <time>2017-08-13T07:54:28Z</time>
      </trkpt>
      <trkpt lat="42.50729" lon="-0.12978">
        <ele>850.1</ele>
        <time>2017-08-13T07:54:29Z</time>
      </trkpt>
      <trkpt lat="42.50733" lon="-0.1298">
        <ele>850.4</ele>
        <time>2017-08-13T07:54:30Z</time>
      </trkpt>
      <trkpt lat="42.50736" lon="-0.12981">
        <ele>850.7</ele>
        <time>2017-08-13T07:54:31Z</time>
      </trkpt>
      <trkpt lat="42.5074" lon="-0.12983">
        <ele>850.8</ele>
        <time>2017-08-13T07:54:32Z</time>
      </trkpt>
      <trkpt lat="42.50743" lon="-0.12985">
        <ele>850.9</ele>
        <time>2017-08-13T07:54:33Z</time>
      </trkpt>
      <trkpt lat="42.50746" lon="-0.12988">
        <ele>851</ele>
        <time>2017-08-13T07:54:34Z</time>
      </trkpt>
      <trkpt lat="42.50749" lon="-0.1299">
        <ele>851.1</ele>
        <time>2017-08-13T07:54:35Z</time>
      </trkpt>
      <trkpt lat="42.50753" lon="-0.12993">
        <ele>851.2</ele>
        <time>2017-08-13T07:54:36Z</time>
      </trkpt>
      <trkpt lat="42.50755" lon="-0.12996">
        <ele>851.3</ele>
        <time>2017-08-13T07:54:37Z</time>
      </trkpt>
      <trkpt lat="42.50758" lon="-0.12999">
        <ele>851.5</ele>
        <time>2017-08-13T07:54:38Z</time>
      </trkpt>
      <trkpt lat="42.5076" lon="-0.13003">
        <ele>851.6</ele>
        <time>2017-08-13T07:54:39Z</time>
      </trkpt>
      <trkpt lat="42.50762" lon="-0.13006">
        <ele>851.8</ele>
        <time>2017-08-13T07:54:40Z</time>
      </trkpt>
      <trkpt lat="42.50765" lon="-0.13009">
        <ele>852</ele>
        <time>2017-08-13T07:54:41Z</time>
      </trkpt>
      <trkpt lat="42.50767" lon="-0.13012">
        <ele>852.3</ele>
        <time>2017-08-13T07:54:42Z</time>
      </trkpt>
      <trkpt lat="42.50769" lon="-0.13015">
        <ele>852.7</ele>
        <time>2017-08-13T07:54:43Z</time>
      </trkpt>
      <trkpt lat="42.50772" lon="-0.13017">
        <ele>853.1</ele>
        <time>2017-08-13T07:54:44Z</time>
      </trkpt>
      <trkpt lat="42.50775" lon="-0.1302">
        <ele>853.3</ele>
        <time>2017-08-13T07:54:45Z</time>
      </trkpt>
      <trkpt lat="42.50777" lon="-0.13023">
        <ele>853.6</ele>
        <time>2017-08-13T07:54:46Z</time>
      </trkpt>
      <trkpt lat="42.5078" lon="-0.13026">
        <ele>853.8</ele>
        <time>2017-08-13T07:54:47Z</time>
      </trkpt>
      <trkpt lat="42.50782" lon="-0.13028">
        <ele>854</ele>
        <time>2017-08-13T07:54:48Z</time>
      </trkpt>
      <trkpt lat="42.50785" lon="-0.13031">
        <ele>854.4</ele>
        <time>2017-08-13T07:54:49Z</time>
      </trkpt>
      <trkpt lat="42.50787" lon="-0.13034">
        <ele>854.8</ele>
        <time>2017-08-13T07:54:50Z</time>
      </trkpt>
      <trkpt lat="42.5079" lon="-0.13037">
        <ele>855.1</ele>
        <time>2017-08-13T07:54:51Z</time>
      </trkpt>
      <trkpt lat="42.50793" lon="-0.13039">
        <ele>855.4</ele>
        <time>2017-08-13T07:54:52Z</time>
      </trkpt>
      <trkpt lat="42.50795" lon="-0.13042">
        <ele>855.5</ele>
        <time>2017-08-13T07:54:53Z</time>
      </trkpt>
      <trkpt lat="42.50798" lon="-0.13045">
        <ele>855.7</ele>
        <time>2017-08-13T07:54:54Z</time>
      </trkpt>
      <trkpt lat="42.508" lon="-0.13048">
        <ele>855.9</ele>
        <time>2017-08-13T07:54:55Z</time>
      </trkpt>
      <trkpt lat="42.50803" lon="-0.1305">
        <ele>856</ele>
        <time>2017-08-13T07:54:56Z</time>
      </trkpt>
      <trkpt lat="42.50805" lon="-0.13052">
        <ele>856.2</ele>
        <time>2017-08-13T07:54:57Z</time>
      </trkpt>
      <trkpt lat="42.50808" lon="-0.13054">
        <ele>856.4</ele>
        <time>2017-08-13T07:54:58Z</time>
      </trkpt>
      <trkpt lat="42.5081" lon="-0.13056">
        <ele>856.7</ele>
        <time>2017-08-13T07:54:59Z</time>
      </trkpt>
      <trkpt lat="42.50813" lon="-0.13059">
        <ele>857.1</ele>
        <time>2017-08-13T07:55:00Z</time>
      </trkpt>
      <trkpt lat="42.50816" lon="-0.13061">
        <ele>857.4</ele>
        <time>2017-08-13T07:55:01Z</time>
      </trkpt>
      <trkpt lat="42.5082" lon="-0.13065">
        <ele>858</ele>
        <time>2017-08-13T07:55:03Z</time>
      </trkpt>
      <trkpt lat="42.50823" lon="-0.13068">
        <ele>858.3</ele>
        <time>2017-08-13T07:55:04Z</time>
      </trkpt>
      <trkpt lat="42.50824" lon="-0.13071">
        <ele>858.5</ele>
        <time>2017-08-13T07:55:05Z</time>
      </trkpt>
      <trkpt lat="42.50828" lon="-0.13075">
        <ele>858.9</ele>
        <time>2017-08-13T07:55:07Z</time>
      </trkpt>
      <trkpt lat="42.5083" lon="-0.13078">
        <ele>859.3</ele>
        <time>2017-08-13T07:55:08Z</time>
      </trkpt>
      <trkpt lat="42.50833" lon="-0.1308">
        <ele>859.6</ele>
        <time>2017-08-13T07:55:09Z</time>
      </trkpt>
      <trkpt lat="42.50835" lon="-0.13083">
        <ele>860</ele>
        <time>2017-08-13T07:55:10Z</time>
      </trkpt>
      <trkpt lat="42.50837" lon="-0.13085">
        <ele>860.3</ele>
        <time>2017-08-13T07:55:11Z</time>
      </trkpt>
      <trkpt lat="42.50839" lon="-0.13087">
        <ele>860.4</ele>
        <time>2017-08-13T07:55:12Z</time>
      </trkpt>
      <trkpt lat="42.50844" lon="-0.13092">
        <ele>860.7</ele>
        <time>2017-08-13T07:55:14Z</time>
      </trkpt>
      <trkpt lat="42.50846" lon="-0.13094">
        <ele>860.9</ele>
        <time>2017-08-13T07:55:15Z</time>
      </trkpt>
      <trkpt lat="42.50848" lon="-0.13097">
        <ele>861.1</ele>
        <time>2017-08-13T07:55:16Z</time>
      </trkpt>
      <trkpt lat="42.5085" lon="-0.13101">
        <ele>861.5</ele>
        <time>2017-08-13T07:55:17Z</time>
      </trkpt>
      <trkpt lat="42.50851" lon="-0.13104">
        <ele>861.8</ele>
        <time>2017-08-13T07:55:18Z</time>
      </trkpt>
      <trkpt lat="42.50853" lon="-0.13107">
        <ele>862.1</ele>
        <time>2017-08-13T07:55:19Z</time>
      </trkpt>
      <trkpt lat="42.50854" lon="-0.13111">
        <ele>862.4</ele>
        <time>2017-08-13T07:55:20Z</time>
      </trkpt>
      <trkpt lat="42.50855" lon="-0.13115">
        <ele>862.7</ele>
        <time>2017-08-13T07:55:21Z</time>
      </trkpt>
      <trkpt lat="42.50856" lon="-0.13119">
        <ele>862.9</ele>
        <time>2017-08-13T07:55:22Z</time>
      </trkpt>
      <trkpt lat="42.50856" lon="-0.13123">
        <ele>863</ele>
        <time>2017-08-13T07:55:23Z</time>
      </trkpt>
      <trkpt lat="42.50857" lon="-0.13126">
        <ele>863.1</ele>
        <time>2017-08-13T07:55:24Z</time>
      </trkpt>
      <trkpt lat="42.50857" lon="-0.1313">
        <ele>863.3</ele>
        <time>2017-08-13T07:55:25Z</time>
      </trkpt>
      <trkpt lat="42.50858" lon="-0.13134">
        <ele>863.4</ele>
        <time>2017-08-13T07:55:26Z</time>
      </trkpt>
      <trkpt lat="42.50858" lon="-0.13138">
        <ele>863.7</ele>
        <time>2017-08-13T07:55:27Z</time>
      </trkpt>
      <trkpt lat="42.50859" lon="-0.13142">
        <ele>864</ele>
        <time>2017-08-13T07:55:28Z</time>
      </trkpt>
      <trkpt lat="42.50859" lon="-0.13145">
        <ele>864.4</ele>
        <time>2017-08-13T07:55:29Z</time>
      </trkpt>
      <trkpt lat="42.5086" lon="-0.13149">
        <ele>864.6</ele>
        <time>2017-08-13T07:55:30Z</time>
      </trkpt>
      <trkpt lat="42.50861" lon="-0.13153">
        <ele>864.8</ele>
        <time>2017-08-13T07:55:31Z</time>
      </trkpt>
      <trkpt lat="42.50861" lon="-0.13157">
        <ele>865</ele>
        <time>2017-08-13T07:55:32Z</time>
      </trkpt>
      <trkpt lat="42.50862" lon="-0.1316">
        <ele>865.1</ele>
        <time>2017-08-13T07:55:33Z</time>
      </trkpt>
      <trkpt lat="42.50862" lon="-0.13164">
        <ele>865.4</ele>
        <time>2017-08-13T07:55:34Z</time>
      </trkpt>
      <trkpt lat="42.50862" lon="-0.13168">
        <ele>865.7</ele>
        <time>2017-08-13T07:55:35Z</time>
      </trkpt>
      <trkpt lat="42.50862" lon="-0.13172">
        <ele>866.1</ele>
        <time>2017-08-13T07:55:36Z</time>
      </trkpt>
      <trkpt lat="42.50863" lon="-0.13177">
        <ele>866.5</ele>
        <time>2017-08-13T07:55:37Z</time>
      </trkpt>
      <trkpt lat="42.50864" lon="-0.13181">
        <ele>866.8</ele>
        <time>2017-08-13T07:55:38Z</time>
      </trkpt>
      <trkpt lat="42.50864" lon="-0.13185">
        <ele>866.9</ele>
        <time>2017-08-13T07:55:39Z</time>
      </trkpt>
      <trkpt lat="42.50865" lon="-0.13189">
        <ele>867</ele>
        <time>2017-08-13T07:55:40Z</time>
      </trkpt>
      <trkpt lat="42.50865" lon="-0.13193">
        <ele>867.1</ele>
        <time>2017-08-13T07:55:41Z</time>
      </trkpt>
      <trkpt lat="42.50866" lon="-0.13197">
        <ele>867.3</ele>
        <time>2017-08-13T07:55:42Z</time>
      </trkpt>
      <trkpt lat="42.50867" lon="-0.13201">
        <ele>867.4</ele>
        <time>2017-08-13T07:55:43Z</time>
      </trkpt>
      <trkpt lat="42.50868" lon="-0.13206">
        <ele>867.5</ele>
        <time>2017-08-13T07:55:44Z</time>
      </trkpt>
      <trkpt lat="42.50869" lon="-0.1321">
        <ele>867.7</ele>
        <time>2017-08-13T07:55:45Z</time>
      </trkpt>
      <trkpt lat="42.50869" lon="-0.13215">
        <ele>867.9</ele>
        <time>2017-08-13T07:55:46Z</time>
      </trkpt>
      <trkpt lat="42.5087" lon="-0.13219">
        <ele>868.2</ele>
        <time>2017-08-13T07:55:47Z</time>
      </trkpt>
      <trkpt lat="42.5087" lon="-0.13224">
        <ele>868.5</ele>
        <time>2017-08-13T07:55:48Z</time>
      </trkpt>
      <trkpt lat="42.5087" lon="-0.13229">
        <ele>868.8</ele>
        <time>2017-08-13T07:55:49Z</time>
      </trkpt>
      <trkpt lat="42.5087" lon="-0.13233">
        <ele>869</ele>
        <time>2017-08-13T07:55:50Z</time>
      </trkpt>
      <trkpt lat="42.5087" lon="-0.13238">
        <ele>869.1</ele>
        <time>2017-08-13T07:55:51Z</time>
      </trkpt>
      <trkpt lat="42.5087" lon="-0.13243">
        <ele>869.1</ele>
        <time>2017-08-13T07:55:52Z</time>
      </trkpt>
      <trkpt lat="42.5087" lon="-0.13247">
        <ele>869.2</ele>
        <time>2017-08-13T07:55:53Z</time>
      </trkpt>
      <trkpt lat="42.50871" lon="-0.13252">
        <ele>869.2</ele>
        <time>2017-08-13T07:55:54Z</time>
      </trkpt>
      <trkpt lat="42.50871" lon="-0.13256">
        <ele>869.3</ele>
        <time>2017-08-13T07:55:55Z</time>
      </trkpt>
      <trkpt lat="42.50872" lon="-0.1326">
        <ele>869.3</ele>
        <time>2017-08-13T07:55:56Z</time>
      </trkpt>
      <trkpt lat="42.50874" lon="-0.13265">
        <ele>869.4</ele>
        <time>2017-08-13T07:55:57Z</time>
      </trkpt>
      <trkpt lat="42.50876" lon="-0.13269">
        <ele>869.4</ele>
        <time>2017-08-13T07:55:58Z</time>
      </trkpt>
      <trkpt lat="42.50879" lon="-0.13272">
        <ele>869.5</ele>
        <time>2017-08-13T07:55:59Z</time>
      </trkpt>
      <trkpt lat="42.50883" lon="-0.13275">
        <ele>869.5</ele>
        <time>2017-08-13T07:56:00Z</time>
      </trkpt>
      <trkpt lat="42.50887" lon="-0.13275">
        <ele>869.6</ele>
        <time>2017-08-13T07:56:01Z</time>
      </trkpt>
      <trkpt lat="42.50892" lon="-0.13273">
        <ele>869.7</ele>
        <time>2017-08-13T07:56:02Z</time>
      </trkpt>
      <trkpt lat="42.50896" lon="-0.1327">
        <ele>869.8</ele>
        <time>2017-08-13T07:56:03Z</time>
      </trkpt>
      <trkpt lat="42.50899" lon="-0.13265">
        <ele>869.9</ele>
        <time>2017-08-13T07:56:04Z</time>
      </trkpt>
      <trkpt lat="42.50901" lon="-0.13261">
        <ele>870</ele>
        <time>2017-08-13T07:56:05Z</time>
      </trkpt>
      <trkpt lat="42.50904" lon="-0.13256">
        <ele>870.2</ele>
        <time>2017-08-13T07:56:06Z</time>
      </trkpt>
      <trkpt lat="42.50906" lon="-0.13252">
        <ele>870.5</ele>
        <time>2017-08-13T07:56:07Z</time>
      </trkpt>
      <trkpt lat="42.50908" lon="-0.13248">
        <ele>870.8</ele>
        <time>2017-08-13T07:56:08Z</time>
      </trkpt>
      <trkpt lat="42.5091" lon="-0.13244">
        <ele>871.1</ele>
        <time>2017-08-13T07:56:09Z</time>
      </trkpt>
      <trkpt lat="42.50913" lon="-0.1324">
        <ele>871.3</ele>
        <time>2017-08-13T07:56:10Z</time>
      </trkpt>
      <trkpt lat="42.50915" lon="-0.13237">
        <ele>871.5</ele>
        <time>2017-08-13T07:56:11Z</time>
      </trkpt>
      <trkpt lat="42.50917" lon="-0.13234">
        <ele>871.6</ele>
        <time>2017-08-13T07:56:12Z</time>
      </trkpt>
      <trkpt lat="42.5092" lon="-0.13231">
        <ele>871.6</ele>
        <time>2017-08-13T07:56:13Z</time>
      </trkpt>
      <trkpt lat="42.50922" lon="-0.13228">
        <ele>871.7</ele>
        <time>2017-08-13T07:56:14Z</time>
      </trkpt>
      <trkpt lat="42.50925" lon="-0.13226">
        <ele>871.8</ele>
        <time>2017-08-13T07:56:15Z</time>
      </trkpt>
      <trkpt lat="42.50928" lon="-0.13223">
        <ele>871.8</ele>
        <time>2017-08-13T07:56:16Z</time>
      </trkpt>
      <trkpt lat="42.50931" lon="-0.13221">
        <ele>871.9</ele>
        <time>2017-08-13T07:56:17Z</time>
      </trkpt>
      <trkpt lat="42.50935" lon="-0.13219">
        <ele>872</ele>
        <time>2017-08-13T07:56:18Z</time>
      </trkpt>
      <trkpt lat="42.50939" lon="-0.13216">
        <ele>872</ele>
        <time>2017-08-13T07:56:19Z</time>
      </trkpt>
      <trkpt lat="42.50942" lon="-0.13213">
        <ele>872</ele>
        <time>2017-08-13T07:56:20Z</time>
      </trkpt>
      <trkpt lat="42.50946" lon="-0.1321">
        <ele>872</ele>
        <time>2017-08-13T07:56:21Z</time>
      </trkpt>
      <trkpt lat="42.5095" lon="-0.13207">
        <ele>872</ele>
        <time>2017-08-13T07:56:22Z</time>
      </trkpt>
      <trkpt lat="42.50954" lon="-0.13204">
        <ele>872</ele>
        <time>2017-08-13T07:56:23Z</time>
      </trkpt>
      <trkpt lat="42.50957" lon="-0.13199">
        <ele>872</ele>
        <time>2017-08-13T07:56:24Z</time>
      </trkpt>
      <trkpt lat="42.50961" lon="-0.13195">
        <ele>872</ele>
        <time>2017-08-13T07:56:25Z</time>
      </trkpt>
      <trkpt lat="42.50964" lon="-0.1319">
        <ele>872</ele>
        <time>2017-08-13T07:56:26Z</time>
      </trkpt>
      <trkpt lat="42.50968" lon="-0.13185">
        <ele>872</ele>
        <time>2017-08-13T07:56:27Z</time>
      </trkpt>
      <trkpt lat="42.50972" lon="-0.1318">
        <ele>872</ele>
        <time>2017-08-13T07:56:28Z</time>
      </trkpt>
      <trkpt lat="42.50977" lon="-0.13177">
        <ele>872</ele>
        <time>2017-08-13T07:56:29Z</time>
      </trkpt>
      <trkpt lat="42.50983" lon="-0.13174">
        <ele>872</ele>
        <time>2017-08-13T07:56:30Z</time>
      </trkpt>
      <trkpt lat="42.50989" lon="-0.13172">
        <ele>872</ele>
        <time>2017-08-13T07:56:31Z</time>
      </trkpt>
      <trkpt lat="42.50995" lon="-0.13173">
        <ele>872</ele>
        <time>2017-08-13T07:56:32Z</time>
      </trkpt>
      <trkpt lat="42.51002" lon="-0.13174">
        <ele>872</ele>
        <time>2017-08-13T07:56:33Z</time>
      </trkpt>
      <trkpt lat="42.51009" lon="-0.13176">
        <ele>871.9</ele>
        <time>2017-08-13T07:56:34Z</time>
      </trkpt>
      <trkpt lat="42.51016" lon="-0.13179">
        <ele>871.9</ele>
        <time>2017-08-13T07:56:35Z</time>
      </trkpt>
      <trkpt lat="42.51025" lon="-0.13184">
        <ele>871.8</ele>
        <time>2017-08-13T07:56:36Z</time>
      </trkpt>
      <trkpt lat="42.51032" lon="-0.13185">
        <ele>871.6</ele>
        <time>2017-08-13T07:56:37Z</time>
      </trkpt>
      <trkpt lat="42.51039" lon="-0.13187">
        <ele>871.5</ele>
        <time>2017-08-13T07:56:38Z</time>
      </trkpt>
      <trkpt lat="42.51046" lon="-0.13187">
        <ele>871.2</ele>
        <time>2017-08-13T07:56:39Z</time>
      </trkpt>
      <trkpt lat="42.51054" lon="-0.13188">
        <ele>870.9</ele>
        <time>2017-08-13T07:56:40Z</time>
      </trkpt>
      <trkpt lat="42.51062" lon="-0.13188">
        <ele>870.6</ele>
        <time>2017-08-13T07:56:41Z</time>
      </trkpt>
      <trkpt lat="42.5107" lon="-0.13186">
        <ele>870.2</ele>
        <time>2017-08-13T07:56:42Z</time>
      </trkpt>
      <trkpt lat="42.51079" lon="-0.13185">
        <ele>869.8</ele>
        <time>2017-08-13T07:56:43Z</time>
      </trkpt>
      <trkpt lat="42.51088" lon="-0.13183">
        <ele>869.4</ele>
        <time>2017-08-13T07:56:44Z</time>
      </trkpt>
      <trkpt lat="42.51097" lon="-0.13182">
        <ele>869</ele>
        <time>2017-08-13T07:56:45Z</time>
      </trkpt>
      <trkpt lat="42.51106" lon="-0.13183">
        <ele>868.5</ele>
        <time>2017-08-13T07:56:46Z</time>
      </trkpt>
      <trkpt lat="42.51115" lon="-0.13184">
        <ele>868.1</ele>
        <time>2017-08-13T07:56:47Z</time>
      </trkpt>
      <trkpt lat="42.51124" lon="-0.13186">
        <ele>867.6</ele>
        <time>2017-08-13T07:56:48Z</time>
      </trkpt>
      <trkpt lat="42.51133" lon="-0.1319">
        <ele>867</ele>
        <time>2017-08-13T07:56:49Z</time>
      </trkpt>
      <trkpt lat="42.51143" lon="-0.13194">
        <ele>866.4</ele>
        <time>2017-08-13T07:56:50Z</time>
      </trkpt>
      <trkpt lat="42.51152" lon="-0.13198">
        <ele>865.7</ele>
        <time>2017-08-13T07:56:51Z</time>
      </trkpt>
      <trkpt lat="42.51161" lon="-0.13202">
        <ele>865</ele>
        <time>2017-08-13T07:56:52Z</time>
      </trkpt>
      <trkpt lat="42.5117" lon="-0.13205">
        <ele>864.1</ele>
        <time>2017-08-13T07:56:53Z</time>
      </trkpt>
      <trkpt lat="42.51181" lon="-0.13206">
        <ele>863.2</ele>
        <time>2017-08-13T07:56:54Z</time>
      </trkpt>
      <trkpt lat="42.51191" lon="-0.13207">
        <ele>862.4</ele>
        <time>2017-08-13T07:56:55Z</time>
      </trkpt>
      <trkpt lat="42.51201" lon="-0.13207">
        <ele>861.6</ele>
        <time>2017-08-13T07:56:56Z</time>
      </trkpt>
      <trkpt lat="42.51211" lon="-0.13205">
        <ele>860.9</ele>
        <time>2017-08-13T07:56:57Z</time>
      </trkpt>
      <trkpt lat="42.51221" lon="-0.13206">
        <ele>860.2</ele>
        <time>2017-08-13T07:56:58Z</time>
      </trkpt>
      <trkpt lat="42.51231" lon="-0.13206">
        <ele>859.6</ele>
        <time>2017-08-13T07:56:59Z</time>
      </trkpt>
      <trkpt lat="42.5124" lon="-0.13207">
        <ele>859</ele>
        <time>2017-08-13T07:57:00Z</time>
      </trkpt>
      <trkpt lat="42.5125" lon="-0.13208">
        <ele>858.5</ele>
        <time>2017-08-13T07:57:01Z</time>
      </trkpt>
      <trkpt lat="42.51259" lon="-0.13209">
        <ele>858</ele>
        <time>2017-08-13T07:57:02Z</time>
      </trkpt>
      <trkpt lat="42.51266" lon="-0.13211">
        <ele>857.7</ele>
        <time>2017-08-13T07:57:03Z</time>
      </trkpt>
      <trkpt lat="42.51274" lon="-0.13214">
        <ele>857.3</ele>
        <time>2017-08-13T07:57:04Z</time>
      </trkpt>
      <trkpt lat="42.51281" lon="-0.13217">
        <ele>857.1</ele>
        <time>2017-08-13T07:57:05Z</time>
      </trkpt>
      <trkpt lat="42.51286" lon="-0.1322">
        <ele>857</ele>
        <time>2017-08-13T07:57:06Z</time>
      </trkpt>
      <trkpt lat="42.51292" lon="-0.13224">
        <ele>856.9</ele>
        <time>2017-08-13T07:57:07Z</time>
      </trkpt>
      <trkpt lat="42.51296" lon="-0.13226">
        <ele>857</ele>
        <time>2017-08-13T07:57:08Z</time>
      </trkpt>
      <trkpt lat="42.51301" lon="-0.13231">
        <ele>857.1</ele>
        <time>2017-08-13T07:57:09Z</time>
      </trkpt>
      <trkpt lat="42.51304" lon="-0.13234">
        <ele>857.2</ele>
        <time>2017-08-13T07:57:10Z</time>
      </trkpt>
      <trkpt lat="42.51307" lon="-0.13237">
        <ele>857.3</ele>
        <time>2017-08-13T07:57:11Z</time>
      </trkpt>
      <trkpt lat="42.5131" lon="-0.13239">
        <ele>857.3</ele>
        <time>2017-08-13T07:57:12Z</time>
      </trkpt>
      <trkpt lat="42.51313" lon="-0.13242">
        <ele>857.5</ele>
        <time>2017-08-13T07:57:13Z</time>
      </trkpt>
      <trkpt lat="42.51317" lon="-0.13244">
        <ele>857.7</ele>
        <time>2017-08-13T07:57:14Z</time>
      </trkpt>
      <trkpt lat="42.51319" lon="-0.13246">
        <ele>858</ele>
        <time>2017-08-13T07:57:15Z</time>
      </trkpt>
      <trkpt lat="42.51322" lon="-0.13248">
        <ele>858.2</ele>
        <time>2017-08-13T07:57:16Z</time>
      </trkpt>
      <trkpt lat="42.51325" lon="-0.13251">
        <ele>858.6</ele>
        <time>2017-08-13T07:57:17Z</time>
      </trkpt>
      <trkpt lat="42.51329" lon="-0.13253">
        <ele>858.9</ele>
        <time>2017-08-13T07:57:18Z</time>
      </trkpt>
      <trkpt lat="42.51332" lon="-0.13255">
        <ele>859.1</ele>
        <time>2017-08-13T07:57:19Z</time>
      </trkpt>
      <trkpt lat="42.51334" lon="-0.13258">
        <ele>859.3</ele>
        <time>2017-08-13T07:57:20Z</time>
      </trkpt>
      <trkpt lat="42.51336" lon="-0.1326">
        <ele>859.5</ele>
        <time>2017-08-13T07:57:21Z</time>
      </trkpt>
      <trkpt lat="42.51339" lon="-0.13261">
        <ele>859.9</ele>
        <time>2017-08-13T07:57:22Z</time>
      </trkpt>
      <trkpt lat="42.51341" lon="-0.13263">
        <ele>860.2</ele>
        <time>2017-08-13T07:57:23Z</time>
      </trkpt>
      <trkpt lat="42.51344" lon="-0.13265">
        <ele>860.6</ele>
        <time>2017-08-13T07:57:24Z</time>
      </trkpt>
      <trkpt lat="42.51347" lon="-0.13267">
        <ele>860.9</ele>
        <time>2017-08-13T07:57:25Z</time>
      </trkpt>
      <trkpt lat="42.5135" lon="-0.13269">
        <ele>861</ele>
        <time>2017-08-13T07:57:26Z</time>
      </trkpt>
      <trkpt lat="42.51352" lon="-0.1327">
        <ele>861.2</ele>
        <time>2017-08-13T07:57:27Z</time>
      </trkpt>
      <trkpt lat="42.51355" lon="-0.13272">
        <ele>861.3</ele>
        <time>2017-08-13T07:57:28Z</time>
      </trkpt>
      <trkpt lat="42.51357" lon="-0.13274">
        <ele>861.4</ele>
        <time>2017-08-13T07:57:29Z</time>
      </trkpt>
      <trkpt lat="42.5136" lon="-0.13276">
        <ele>861.5</ele>
        <time>2017-08-13T07:57:30Z</time>
      </trkpt>
      <trkpt lat="42.51363" lon="-0.13278">
        <ele>861.6</ele>
        <time>2017-08-13T07:57:31Z</time>
      </trkpt>
      <trkpt lat="42.51366" lon="-0.13279">
        <ele>861.8</ele>
        <time>2017-08-13T07:57:32Z</time>
      </trkpt>
      <trkpt lat="42.51368" lon="-0.13281">
        <ele>862</ele>
        <time>2017-08-13T07:57:33Z</time>
      </trkpt>
      <trkpt lat="42.51371" lon="-0.13283">
        <ele>862.4</ele>
        <time>2017-08-13T07:57:34Z</time>
      </trkpt>
      <trkpt lat="42.51374" lon="-0.13285">
        <ele>862.8</ele>
        <time>2017-08-13T07:57:35Z</time>
      </trkpt>
      <trkpt lat="42.51376" lon="-0.13287">
        <ele>863.1</ele>
        <time>2017-08-13T07:57:36Z</time>
      </trkpt>
      <trkpt lat="42.51379" lon="-0.13289">
        <ele>863.3</ele>
        <time>2017-08-13T07:57:37Z</time>
      </trkpt>
      <trkpt lat="42.51382" lon="-0.1329">
        <ele>863.5</ele>
        <time>2017-08-13T07:57:38Z</time>
      </trkpt>
      <trkpt lat="42.51385" lon="-0.13292">
        <ele>863.7</ele>
        <time>2017-08-13T07:57:39Z</time>
      </trkpt>
      <trkpt lat="42.51389" lon="-0.13294">
        <ele>863.9</ele>
        <time>2017-08-13T07:57:40Z</time>
      </trkpt>
      <trkpt lat="42.51392" lon="-0.13296">
        <ele>864</ele>
        <time>2017-08-13T07:57:41Z</time>
      </trkpt>
      <trkpt lat="42.51395" lon="-0.13297">
        <ele>864.2</ele>
        <time>2017-08-13T07:57:42Z</time>
      </trkpt>
      <trkpt lat="42.51398" lon="-0.13299">
        <ele>864.4</ele>
        <time>2017-08-13T07:57:43Z</time>
      </trkpt>
      <trkpt lat="42.51401" lon="-0.133">
        <ele>864.7</ele>
        <time>2017-08-13T07:57:44Z</time>
      </trkpt>
      <trkpt lat="42.51405" lon="-0.13302">
        <ele>865</ele>
        <time>2017-08-13T07:57:45Z</time>
      </trkpt>
      <trkpt lat="42.51408" lon="-0.13303">
        <ele>865.2</ele>
        <time>2017-08-13T07:57:46Z</time>
      </trkpt>
      <trkpt lat="42.51411" lon="-0.13305">
        <ele>865.3</ele>
        <time>2017-08-13T07:57:47Z</time>
      </trkpt>
      <trkpt lat="42.51415" lon="-0.13306">
        <ele>865.4</ele>
        <time>2017-08-13T07:57:48Z</time>
      </trkpt>
      <trkpt lat="42.51418" lon="-0.13307">
        <ele>865.5</ele>
        <time>2017-08-13T07:57:49Z</time>
      </trkpt>
      <trkpt lat="42.51421" lon="-0.13308">
        <ele>865.6</ele>
        <time>2017-08-13T07:57:50Z</time>
      </trkpt>
      <trkpt lat="42.51425" lon="-0.13309">
        <ele>865.8</ele>
        <time>2017-08-13T07:57:51Z</time>
      </trkpt>
      <trkpt lat="42.51428" lon="-0.1331">
        <ele>865.9</ele>
        <time>2017-08-13T07:57:52Z</time>
      </trkpt>
      <trkpt lat="42.51431" lon="-0.13312">
        <ele>866</ele>
        <time>2017-08-13T07:57:53Z</time>
      </trkpt>
      <trkpt lat="42.51434" lon="-0.13313">
        <ele>866.2</ele>
        <time>2017-08-13T07:57:54Z</time>
      </trkpt>
      <trkpt lat="42.51437" lon="-0.13314">
        <ele>866.3</ele>
        <time>2017-08-13T07:57:55Z</time>
      </trkpt>
      <trkpt lat="42.5144" lon="-0.13315">
        <ele>866.6</ele>
        <time>2017-08-13T07:57:56Z</time>
      </trkpt>
      <trkpt lat="42.51443" lon="-0.13316">
        <ele>867</ele>
        <time>2017-08-13T07:57:57Z</time>
      </trkpt>
      <trkpt lat="42.51446" lon="-0.13318">
        <ele>867.3</ele>
        <time>2017-08-13T07:57:58Z</time>
      </trkpt>
      <trkpt lat="42.51449" lon="-0.13319">
        <ele>867.7</ele>
        <time>2017-08-13T07:57:59Z</time>
      </trkpt>
      <trkpt lat="42.51452" lon="-0.13321">
        <ele>867.9</ele>
        <time>2017-08-13T07:58:00Z</time>
      </trkpt>
      <trkpt lat="42.51455" lon="-0.13322">
        <ele>868</ele>
        <time>2017-08-13T07:58:01Z</time>
      </trkpt>
      <trkpt lat="42.51458" lon="-0.13323">
        <ele>868.2</ele>
        <time>2017-08-13T07:58:02Z</time>
      </trkpt>
      <trkpt lat="42.51461" lon="-0.13324">
        <ele>868.3</ele>
        <time>2017-08-13T07:58:03Z</time>
      </trkpt>
      <trkpt lat="42.51464" lon="-0.13325">
        <ele>868.5</ele>
        <time>2017-08-13T07:58:04Z</time>
      </trkpt>
      <trkpt lat="42.51467" lon="-0.13326">
        <ele>868.6</ele>
        <time>2017-08-13T07:58:05Z</time>
      </trkpt>
      <trkpt lat="42.5147" lon="-0.13327">
        <ele>869</ele>
        <time>2017-08-13T07:58:06Z</time>
      </trkpt>
      <trkpt lat="42.51473" lon="-0.13327">
        <ele>869.4</ele>
        <time>2017-08-13T07:58:07Z</time>
      </trkpt>
      <trkpt lat="42.51476" lon="-0.13329">
        <ele>869.7</ele>
        <time>2017-08-13T07:58:08Z</time>
      </trkpt>
      <trkpt lat="42.51479" lon="-0.1333">
        <ele>869.9</ele>
        <time>2017-08-13T07:58:09Z</time>
      </trkpt>
      <trkpt lat="42.51482" lon="-0.13331">
        <ele>870.1</ele>
        <time>2017-08-13T07:58:10Z</time>
      </trkpt>
      <trkpt lat="42.51485" lon="-0.13332">
        <ele>870.2</ele>
        <time>2017-08-13T07:58:11Z</time>
      </trkpt>
      <trkpt lat="42.51487" lon="-0.13333">
        <ele>870.4</ele>
        <time>2017-08-13T07:58:12Z</time>
      </trkpt>
      <trkpt lat="42.5149" lon="-0.13334">
        <ele>870.5</ele>
        <time>2017-08-13T07:58:13Z</time>
      </trkpt>
      <trkpt lat="42.51493" lon="-0.13335">
        <ele>870.7</ele>
        <time>2017-08-13T07:58:14Z</time>
      </trkpt>
      <trkpt lat="42.51496" lon="-0.13336">
        <ele>870.9</ele>
        <time>2017-08-13T07:58:15Z</time>
      </trkpt>
      <trkpt lat="42.51499" lon="-0.13338">
        <ele>871.2</ele>
        <time>2017-08-13T07:58:16Z</time>
      </trkpt>
      <trkpt lat="42.51502" lon="-0.13339">
        <ele>871.5</ele>
        <time>2017-08-13T07:58:17Z</time>
      </trkpt>
      <trkpt lat="42.51504" lon="-0.1334">
        <ele>871.8</ele>
        <time>2017-08-13T07:58:18Z</time>
      </trkpt>
      <trkpt lat="42.51507" lon="-0.13342">
        <ele>872</ele>
        <time>2017-08-13T07:58:19Z</time>
      </trkpt>
      <trkpt lat="42.5151" lon="-0.13343">
        <ele>872.1</ele>
        <time>2017-08-13T07:58:20Z</time>
      </trkpt>
      <trkpt lat="42.51513" lon="-0.13344">
        <ele>872.2</ele>
        <time>2017-08-13T07:58:21Z</time>
      </trkpt>
      <trkpt lat="42.51516" lon="-0.13345">
        <ele>872.3</ele>
        <time>2017-08-13T07:58:22Z</time>
      </trkpt>
      <trkpt lat="42.51518" lon="-0.13347">
        <ele>872.4</ele>
        <time>2017-08-13T07:58:23Z</time>
      </trkpt>
      <trkpt lat="42.51524" lon="-0.13349">
        <ele>872.8</ele>
        <time>2017-08-13T07:58:25Z</time>
      </trkpt>
      <trkpt lat="42.51527" lon="-0.13351">
        <ele>873.1</ele>
        <time>2017-08-13T07:58:26Z</time>
      </trkpt>
      <trkpt lat="42.5153" lon="-0.13353">
        <ele>873.5</ele>
        <time>2017-08-13T07:58:27Z</time>
      </trkpt>
      <trkpt lat="42.51533" lon="-0.13354">
        <ele>873.9</ele>
        <time>2017-08-13T07:58:28Z</time>
      </trkpt>
      <trkpt lat="42.51538" lon="-0.13356">
        <ele>874.1</ele>
        <time>2017-08-13T07:58:30Z</time>
      </trkpt>
      <trkpt lat="42.5154" lon="-0.13358">
        <ele>874.3</ele>
        <time>2017-08-13T07:58:31Z</time>
      </trkpt>
      <trkpt lat="42.51543" lon="-0.13359">
        <ele>874.5</ele>
        <time>2017-08-13T07:58:32Z</time>
      </trkpt>
      <trkpt lat="42.51548" lon="-0.13362">
        <ele>874.8</ele>
        <time>2017-08-13T07:58:34Z</time>
      </trkpt>
      <trkpt lat="42.5155" lon="-0.13363">
        <ele>875</ele>
        <time>2017-08-13T07:58:35Z</time>
      </trkpt>
      <trkpt lat="42.51555" lon="-0.13364">
        <ele>875.6</ele>
        <time>2017-08-13T07:58:37Z</time>
      </trkpt>
      <trkpt lat="42.51559" lon="-0.13365">
        <ele>876.2</ele>
        <time>2017-08-13T07:58:39Z</time>
      </trkpt>
      <trkpt lat="42.51564" lon="-0.13366">
        <ele>876.5</ele>
        <time>2017-08-13T07:58:41Z</time>
      </trkpt>
      <trkpt lat="42.51567" lon="-0.13367">
        <ele>876.7</ele>
        <time>2017-08-13T07:58:42Z</time>
      </trkpt>
      <trkpt lat="42.51571" lon="-0.13369">
        <ele>876.9</ele>
        <time>2017-08-13T07:58:44Z</time>
      </trkpt>
      <trkpt lat="42.51576" lon="-0.13371">
        <ele>877.3</ele>
        <time>2017-08-13T07:58:46Z</time>
      </trkpt>
      <trkpt lat="42.51581" lon="-0.13373">
        <ele>878</ele>
        <time>2017-08-13T07:58:48Z</time>
      </trkpt>
      <trkpt lat="42.51586" lon="-0.13376">
        <ele>878.6</ele>
        <time>2017-08-13T07:58:50Z</time>
      </trkpt>
      <trkpt lat="42.5159" lon="-0.13379">
        <ele>879.1</ele>
        <time>2017-08-13T07:58:52Z</time>
      </trkpt>
      <trkpt lat="42.51595" lon="-0.13382">
        <ele>879.7</ele>
        <time>2017-08-13T07:58:54Z</time>
      </trkpt>
      <trkpt lat="42.51598" lon="-0.13383">
        <ele>880.1</ele>
        <time>2017-08-13T07:58:55Z</time>
      </trkpt>
      <trkpt lat="42.516" lon="-0.13385">
        <ele>880.5</ele>
        <time>2017-08-13T07:58:56Z</time>
      </trkpt>
      <trkpt lat="42.51603" lon="-0.13386">
        <ele>880.7</ele>
        <time>2017-08-13T07:58:57Z</time>
      </trkpt>
      <trkpt lat="42.51607" lon="-0.13389">
        <ele>881</ele>
        <time>2017-08-13T07:58:59Z</time>
      </trkpt>
      <trkpt lat="42.51612" lon="-0.13391">
        <ele>881.3</ele>
        <time>2017-08-13T07:59:01Z</time>
      </trkpt>
      <trkpt lat="42.51617" lon="-0.13394">
        <ele>881.8</ele>
        <time>2017-08-13T07:59:03Z</time>
      </trkpt>
      <trkpt lat="42.51622" lon="-0.13397">
        <ele>882.5</ele>
        <time>2017-08-13T07:59:05Z</time>
      </trkpt>
      <trkpt lat="42.51626" lon="-0.134">
        <ele>883</ele>
        <time>2017-08-13T07:59:07Z</time>
      </trkpt>
      <trkpt lat="42.51631" lon="-0.13402">
        <ele>883.3</ele>
        <time>2017-08-13T07:59:09Z</time>
      </trkpt>
      <trkpt lat="42.51636" lon="-0.13404">
        <ele>883.9</ele>
        <time>2017-08-13T07:59:11Z</time>
      </trkpt>
      <trkpt lat="42.5164" lon="-0.13407">
        <ele>884.6</ele>
        <time>2017-08-13T07:59:13Z</time>
      </trkpt>
      <trkpt lat="42.51645" lon="-0.13409">
        <ele>885.1</ele>
        <time>2017-08-13T07:59:15Z</time>
      </trkpt>
      <trkpt lat="42.5165" lon="-0.13411">
        <ele>885.4</ele>
        <time>2017-08-13T07:59:17Z</time>
      </trkpt>
      <trkpt lat="42.51653" lon="-0.13412">
        <ele>885.6</ele>
        <time>2017-08-13T07:59:18Z</time>
      </trkpt>
      <trkpt lat="42.51655" lon="-0.13414">
        <ele>885.9</ele>
        <time>2017-08-13T07:59:19Z</time>
      </trkpt>
      <trkpt lat="42.51658" lon="-0.13415">
        <ele>886.2</ele>
        <time>2017-08-13T07:59:20Z</time>
      </trkpt>
      <trkpt lat="42.51661" lon="-0.13416">
        <ele>886.6</ele>
        <time>2017-08-13T07:59:21Z</time>
      </trkpt>
      <trkpt lat="42.51663" lon="-0.13417">
        <ele>886.9</ele>
        <time>2017-08-13T07:59:22Z</time>
      </trkpt>
      <trkpt lat="42.51668" lon="-0.1342">
        <ele>887.1</ele>
        <time>2017-08-13T07:59:24Z</time>
      </trkpt>
      <trkpt lat="42.51672" lon="-0.13423">
        <ele>887.4</ele>
        <time>2017-08-13T07:59:26Z</time>
      </trkpt>
      <trkpt lat="42.51677" lon="-0.13425">
        <ele>887.7</ele>
        <time>2017-08-13T07:59:28Z</time>
      </trkpt>
      <trkpt lat="42.51681" lon="-0.13428">
        <ele>888.2</ele>
        <time>2017-08-13T07:59:30Z</time>
      </trkpt>
      <trkpt lat="42.51685" lon="-0.13431">
        <ele>888.8</ele>
        <time>2017-08-13T07:59:32Z</time>
      </trkpt>
      <trkpt lat="42.51689" lon="-0.13435">
        <ele>889.4</ele>
        <time>2017-08-13T07:59:34Z</time>
      </trkpt>
      <trkpt lat="42.51693" lon="-0.13438">
        <ele>889.7</ele>
        <time>2017-08-13T07:59:36Z</time>
      </trkpt>
      <trkpt lat="42.51697" lon="-0.13441">
        <ele>890.1</ele>
        <time>2017-08-13T07:59:38Z</time>
      </trkpt>
      <trkpt lat="42.51701" lon="-0.13444">
        <ele>890.7</ele>
        <time>2017-08-13T07:59:40Z</time>
      </trkpt>
      <trkpt lat="42.51705" lon="-0.13448">
        <ele>891.4</ele>
        <time>2017-08-13T07:59:42Z</time>
      </trkpt>
      <trkpt lat="42.51709" lon="-0.13452">
        <ele>891.7</ele>
        <time>2017-08-13T07:59:44Z</time>
      </trkpt>
      <trkpt lat="42.51713" lon="-0.13456">
        <ele>892</ele>
        <time>2017-08-13T07:59:46Z</time>
      </trkpt>
      <trkpt lat="42.51717" lon="-0.13459">
        <ele>892.2</ele>
        <time>2017-08-13T07:59:48Z</time>
      </trkpt>
      <trkpt lat="42.51721" lon="-0.13463">
        <ele>892.9</ele>
        <time>2017-08-13T07:59:50Z</time>
      </trkpt>
      <trkpt lat="42.51726" lon="-0.13467">
        <ele>893.5</ele>
        <time>2017-08-13T07:59:52Z</time>
      </trkpt>
      <trkpt lat="42.5173" lon="-0.1347">
        <ele>893.8</ele>
        <time>2017-08-13T07:59:54Z</time>
      </trkpt>
      <trkpt lat="42.51735" lon="-0.13472">
        <ele>894.2</ele>
        <time>2017-08-13T07:59:56Z</time>
      </trkpt>
      <trkpt lat="42.5174" lon="-0.13473">
        <ele>894.7</ele>
        <time>2017-08-13T07:59:58Z</time>
      </trkpt>
      <trkpt lat="42.51746" lon="-0.13474">
        <ele>895.5</ele>
        <time>2017-08-13T08:00:00Z</time>
      </trkpt>
      <trkpt lat="42.51748" lon="-0.13474">
        <ele>895.9</ele>
        <time>2017-08-13T08:00:01Z</time>
      </trkpt>
      <trkpt lat="42.51751" lon="-0.13474">
        <ele>896.1</ele>
        <time>2017-08-13T08:00:02Z</time>
      </trkpt>
      <trkpt lat="42.51754" lon="-0.13475">
        <ele>896.3</ele>
        <time>2017-08-13T08:00:03Z</time>
      </trkpt>
      <trkpt lat="42.51757" lon="-0.13475">
        <ele>896.5</ele>
        <time>2017-08-13T08:00:04Z</time>
      </trkpt>
      <trkpt lat="42.5176" lon="-0.13476">
        <ele>896.9</ele>
        <time>2017-08-13T08:00:05Z</time>
      </trkpt>
      <trkpt lat="42.51763" lon="-0.13477">
        <ele>897.3</ele>
        <time>2017-08-13T08:00:06Z</time>
      </trkpt>
      <trkpt lat="42.51767" lon="-0.13478">
        <ele>897.7</ele>
        <time>2017-08-13T08:00:07Z</time>
      </trkpt>
      <trkpt lat="42.5177" lon="-0.13478">
        <ele>897.9</ele>
        <time>2017-08-13T08:00:08Z</time>
      </trkpt>
      <trkpt lat="42.51773" lon="-0.13479">
        <ele>898.1</ele>
        <time>2017-08-13T08:00:09Z</time>
      </trkpt>
      <trkpt lat="42.51776" lon="-0.13479">
        <ele>898.2</ele>
        <time>2017-08-13T08:00:10Z</time>
      </trkpt>
      <trkpt lat="42.5178" lon="-0.13479">
        <ele>898.3</ele>
        <time>2017-08-13T08:00:11Z</time>
      </trkpt>
      <trkpt lat="42.51783" lon="-0.1348">
        <ele>898.5</ele>
        <time>2017-08-13T08:00:12Z</time>
      </trkpt>
      <trkpt lat="42.51787" lon="-0.1348">
        <ele>898.7</ele>
        <time>2017-08-13T08:00:13Z</time>
      </trkpt>
      <trkpt lat="42.5179" lon="-0.1348">
        <ele>898.8</ele>
        <time>2017-08-13T08:00:14Z</time>
      </trkpt>
      <trkpt lat="42.51793" lon="-0.1348">
        <ele>899</ele>
        <time>2017-08-13T08:00:15Z</time>
      </trkpt>
      <trkpt lat="42.51796" lon="-0.1348">
        <ele>899.3</ele>
        <time>2017-08-13T08:00:16Z</time>
      </trkpt>
      <trkpt lat="42.51799" lon="-0.13479">
        <ele>899.6</ele>
        <time>2017-08-13T08:00:17Z</time>
      </trkpt>
      <trkpt lat="42.51803" lon="-0.13478">
        <ele>899.9</ele>
        <time>2017-08-13T08:00:18Z</time>
      </trkpt>
      <trkpt lat="42.51806" lon="-0.13477">
        <ele>900.1</ele>
        <time>2017-08-13T08:00:19Z</time>
      </trkpt>
      <trkpt lat="42.51809" lon="-0.13477">
        <ele>900.2</ele>
        <time>2017-08-13T08:00:20Z</time>
      </trkpt>
      <trkpt lat="42.51812" lon="-0.13476">
        <ele>900.3</ele>
        <time>2017-08-13T08:00:21Z</time>
      </trkpt>
      <trkpt lat="42.51815" lon="-0.13475">
        <ele>900.4</ele>
        <time>2017-08-13T08:00:22Z</time>
      </trkpt>
      <trkpt lat="42.51819" lon="-0.13475">
        <ele>900.5</ele>
        <time>2017-08-13T08:00:23Z</time>
      </trkpt>
      <trkpt lat="42.51822" lon="-0.13475">
        <ele>900.7</ele>
        <time>2017-08-13T08:00:24Z</time>
      </trkpt>
      <trkpt lat="42.51825" lon="-0.13474">
        <ele>900.8</ele>
        <time>2017-08-13T08:00:25Z</time>
      </trkpt>
      <trkpt lat="42.51829" lon="-0.13474">
        <ele>901</ele>
        <time>2017-08-13T08:00:26Z</time>
      </trkpt>
      <trkpt lat="42.51832" lon="-0.13474">
        <ele>901.1</ele>
        <time>2017-08-13T08:00:27Z</time>
      </trkpt>
      <trkpt lat="42.51835" lon="-0.13473">
        <ele>901.4</ele>
        <time>2017-08-13T08:00:28Z</time>
      </trkpt>
      <trkpt lat="42.51838" lon="-0.13473">
        <ele>901.7</ele>
        <time>2017-08-13T08:00:29Z</time>
      </trkpt>
      <trkpt lat="42.51841" lon="-0.13473">
        <ele>902</ele>
        <time>2017-08-13T08:00:30Z</time>
      </trkpt>
      <trkpt lat="42.51845" lon="-0.13473">
        <ele>902.3</ele>
        <time>2017-08-13T08:00:31Z</time>
      </trkpt>
      <trkpt lat="42.51848" lon="-0.13473">
        <ele>902.5</ele>
        <time>2017-08-13T08:00:32Z</time>
      </trkpt>
      <trkpt lat="42.51851" lon="-0.13473">
        <ele>902.6</ele>
        <time>2017-08-13T08:00:33Z</time>
      </trkpt>
      <trkpt lat="42.51854" lon="-0.13474">
        <ele>902.7</ele>
        <time>2017-08-13T08:00:34Z</time>
      </trkpt>
      <trkpt lat="42.51857" lon="-0.13474">
        <ele>902.7</ele>
        <time>2017-08-13T08:00:35Z</time>
      </trkpt>
      <trkpt lat="42.5186" lon="-0.13475">
        <ele>902.8</ele>
        <time>2017-08-13T08:00:36Z</time>
      </trkpt>
      <trkpt lat="42.51864" lon="-0.13475">
        <ele>902.9</ele>
        <time>2017-08-13T08:00:37Z</time>
      </trkpt>
      <trkpt lat="42.51867" lon="-0.13476">
        <ele>903</ele>
        <time>2017-08-13T08:00:38Z</time>
      </trkpt>
      <trkpt lat="42.5187" lon="-0.13476">
        <ele>903.1</ele>
        <time>2017-08-13T08:00:39Z</time>
      </trkpt>
      <trkpt lat="42.51872" lon="-0.13476">
        <ele>903.2</ele>
        <time>2017-08-13T08:00:40Z</time>
      </trkpt>
      <trkpt lat="42.51875" lon="-0.13476">
        <ele>903.3</ele>
        <time>2017-08-13T08:00:41Z</time>
      </trkpt>
      <trkpt lat="42.51881" lon="-0.13476">
        <ele>903.7</ele>
        <time>2017-08-13T08:00:43Z</time>
      </trkpt>
      <trkpt lat="42.51883" lon="-0.13476">
        <ele>904</ele>
        <time>2017-08-13T08:00:44Z</time>
      </trkpt>
      <trkpt lat="42.51886" lon="-0.13477">
        <ele>904.3</ele>
        <time>2017-08-13T08:00:45Z</time>
      </trkpt>
      <trkpt lat="42.51889" lon="-0.13477">
        <ele>904.6</ele>
        <time>2017-08-13T08:00:46Z</time>
      </trkpt>
      <trkpt lat="42.51892" lon="-0.13478">
        <ele>904.9</ele>
        <time>2017-08-13T08:00:47Z</time>
      </trkpt>
      <trkpt lat="42.51895" lon="-0.13478">
        <ele>905</ele>
        <time>2017-08-13T08:00:48Z</time>
      </trkpt>
      <trkpt lat="42.51898" lon="-0.13479">
        <ele>905.1</ele>
        <time>2017-08-13T08:00:49Z</time>
      </trkpt>
      <trkpt lat="42.51903" lon="-0.1348">
        <ele>905.3</ele>
        <time>2017-08-13T08:00:51Z</time>
      </trkpt>
      <trkpt lat="42.51908" lon="-0.13482">
        <ele>905.5</ele>
        <time>2017-08-13T08:00:53Z</time>
      </trkpt>
      <trkpt lat="42.51912" lon="-0.13485">
        <ele>905.9</ele>
        <time>2017-08-13T08:00:55Z</time>
      </trkpt>
      <trkpt lat="42.51916" lon="-0.13488">
        <ele>906.5</ele>
        <time>2017-08-13T08:00:57Z</time>
      </trkpt>
      <trkpt lat="42.51921" lon="-0.13491">
        <ele>906.9</ele>
        <time>2017-08-13T08:00:59Z</time>
      </trkpt>
      <trkpt lat="42.51925" lon="-0.13493">
        <ele>907.2</ele>
        <time>2017-08-13T08:01:01Z</time>
      </trkpt>
      <trkpt lat="42.51928" lon="-0.13494">
        <ele>907.4</ele>
        <time>2017-08-13T08:01:02Z</time>
      </trkpt>
      <trkpt lat="42.51933" lon="-0.13496">
        <ele>907.8</ele>
        <time>2017-08-13T08:01:04Z</time>
      </trkpt>
      <trkpt lat="42.51936" lon="-0.13496">
        <ele>908.2</ele>
        <time>2017-08-13T08:01:05Z</time>
      </trkpt>
      <trkpt lat="42.51939" lon="-0.13497">
        <ele>908.5</ele>
        <time>2017-08-13T08:01:06Z</time>
      </trkpt>
      <trkpt lat="42.51941" lon="-0.13497">
        <ele>909</ele>
        <time>2017-08-13T08:01:07Z</time>
      </trkpt>
      <trkpt lat="42.51944" lon="-0.13497">
        <ele>909.3</ele>
        <time>2017-08-13T08:01:08Z</time>
      </trkpt>
      <trkpt lat="42.51949" lon="-0.13496">
        <ele>909.6</ele>
        <time>2017-08-13T08:01:10Z</time>
      </trkpt>
      <trkpt lat="42.51952" lon="-0.13496">
        <ele>909.8</ele>
        <time>2017-08-13T08:01:11Z</time>
      </trkpt>
      <trkpt lat="42.51955" lon="-0.13495">
        <ele>910.2</ele>
        <time>2017-08-13T08:01:12Z</time>
      </trkpt>
      <trkpt lat="42.51958" lon="-0.13494">
        <ele>910.6</ele>
        <time>2017-08-13T08:01:13Z</time>
      </trkpt>
      <trkpt lat="42.5196" lon="-0.13493">
        <ele>911.1</ele>
        <time>2017-08-13T08:01:14Z</time>
      </trkpt>
      <trkpt lat="42.51963" lon="-0.13491">
        <ele>911.4</ele>
        <time>2017-08-13T08:01:15Z</time>
      </trkpt>
      <trkpt lat="42.51966" lon="-0.13491">
        <ele>911.6</ele>
        <time>2017-08-13T08:01:16Z</time>
      </trkpt>
      <trkpt lat="42.51969" lon="-0.1349">
        <ele>911.8</ele>
        <time>2017-08-13T08:01:17Z</time>
      </trkpt>
      <trkpt lat="42.51971" lon="-0.13489">
        <ele>911.9</ele>
        <time>2017-08-13T08:01:18Z</time>
      </trkpt>
      <trkpt lat="42.51974" lon="-0.13489">
        <ele>912.1</ele>
        <time>2017-08-13T08:01:19Z</time>
      </trkpt>
      <trkpt lat="42.51977" lon="-0.13488">
        <ele>912.3</ele>
        <time>2017-08-13T08:01:20Z</time>
      </trkpt>
      <trkpt lat="42.5198" lon="-0.13488">
        <ele>912.6</ele>
        <time>2017-08-13T08:01:21Z</time>
      </trkpt>
      <trkpt lat="42.51984" lon="-0.13486">
        <ele>913.1</ele>
        <time>2017-08-13T08:01:23Z</time>
      </trkpt>
      <trkpt lat="42.51989" lon="-0.13485">
        <ele>913.4</ele>
        <time>2017-08-13T08:01:25Z</time>
      </trkpt>
      <trkpt lat="42.51994" lon="-0.13487">
        <ele>913.6</ele>
        <time>2017-08-13T08:01:27Z</time>
      </trkpt>
      <trkpt lat="42.51996" lon="-0.13489">
        <ele>913.7</ele>
        <time>2017-08-13T08:01:28Z</time>
      </trkpt>
      <trkpt lat="42.51999" lon="-0.13491">
        <ele>913.8</ele>
        <time>2017-08-13T08:01:29Z</time>
      </trkpt>
      <trkpt lat="42.52003" lon="-0.13495">
        <ele>914.2</ele>
        <time>2017-08-13T08:01:31Z</time>
      </trkpt>
      <trkpt lat="42.52005" lon="-0.13497">
        <ele>914.5</ele>
        <time>2017-08-13T08:01:32Z</time>
      </trkpt>
      <trkpt lat="42.52007" lon="-0.135">
        <ele>914.8</ele>
        <time>2017-08-13T08:01:33Z</time>
      </trkpt>
      <trkpt lat="42.52009" lon="-0.13502">
        <ele>915.2</ele>
        <time>2017-08-13T08:01:34Z</time>
      </trkpt>
      <trkpt lat="42.52011" lon="-0.13505">
        <ele>915.6</ele>
        <time>2017-08-13T08:01:35Z</time>
      </trkpt>
      <trkpt lat="42.52013" lon="-0.13508">
        <ele>915.8</ele>
        <time>2017-08-13T08:01:36Z</time>
      </trkpt>
      <trkpt lat="42.52017" lon="-0.13513">
        <ele>916.1</ele>
        <time>2017-08-13T08:01:38Z</time>
      </trkpt>
      <trkpt lat="42.52019" lon="-0.13515">
        <ele>916.2</ele>
        <time>2017-08-13T08:01:39Z</time>
      </trkpt>
      <trkpt lat="42.52023" lon="-0.1352">
        <ele>916.6</ele>
        <time>2017-08-13T08:01:41Z</time>
      </trkpt>
      <trkpt lat="42.52027" lon="-0.13523">
        <ele>917.2</ele>
        <time>2017-08-13T08:01:43Z</time>
      </trkpt>
      <trkpt lat="42.52029" lon="-0.13526">
        <ele>917.6</ele>
        <time>2017-08-13T08:01:44Z</time>
      </trkpt>
      <trkpt lat="42.52031" lon="-0.13528">
        <ele>917.9</ele>
        <time>2017-08-13T08:01:45Z</time>
      </trkpt>
      <trkpt lat="42.52034" lon="-0.1353">
        <ele>918.1</ele>
        <time>2017-08-13T08:01:46Z</time>
      </trkpt>
      <trkpt lat="42.52037" lon="-0.13532">
        <ele>918.3</ele>
        <time>2017-08-13T08:01:47Z</time>
      </trkpt>
      <trkpt lat="42.52039" lon="-0.13534">
        <ele>918.5</ele>
        <time>2017-08-13T08:01:48Z</time>
      </trkpt>
      <trkpt lat="42.52042" lon="-0.13536">
        <ele>918.7</ele>
        <time>2017-08-13T08:01:49Z</time>
      </trkpt>
      <trkpt lat="42.52045" lon="-0.13539">
        <ele>919.1</ele>
        <time>2017-08-13T08:01:50Z</time>
      </trkpt>
      <trkpt lat="42.52048" lon="-0.13542">
        <ele>919.6</ele>
        <time>2017-08-13T08:01:51Z</time>
      </trkpt>
      <trkpt lat="42.52051" lon="-0.13544">
        <ele>919.8</ele>
        <time>2017-08-13T08:01:52Z</time>
      </trkpt>
      <trkpt lat="42.52053" lon="-0.13546">
        <ele>919.9</ele>
        <time>2017-08-13T08:01:53Z</time>
      </trkpt>
      <trkpt lat="42.52056" lon="-0.13548">
        <ele>920.1</ele>
        <time>2017-08-13T08:01:54Z</time>
      </trkpt>
      <trkpt lat="42.52059" lon="-0.1355">
        <ele>920.2</ele>
        <time>2017-08-13T08:01:55Z</time>
      </trkpt>
      <trkpt lat="42.52062" lon="-0.13552">
        <ele>920.4</ele>
        <time>2017-08-13T08:01:56Z</time>
      </trkpt>
      <trkpt lat="42.52064" lon="-0.13554">
        <ele>920.5</ele>
        <time>2017-08-13T08:01:57Z</time>
      </trkpt>
      <trkpt lat="42.52067" lon="-0.13556">
        <ele>920.6</ele>
        <time>2017-08-13T08:01:58Z</time>
      </trkpt>
      <trkpt lat="42.5207" lon="-0.13558">
        <ele>920.7</ele>
        <time>2017-08-13T08:01:59Z</time>
      </trkpt>
      <trkpt lat="42.52072" lon="-0.13559">
        <ele>920.8</ele>
        <time>2017-08-13T08:02:00Z</time>
      </trkpt>
      <trkpt lat="42.52075" lon="-0.13561">
        <ele>920.9</ele>
        <time>2017-08-13T08:02:01Z</time>
      </trkpt>
      <trkpt lat="42.52078" lon="-0.13564">
        <ele>921.2</ele>
        <time>2017-08-13T08:02:02Z</time>
      </trkpt>
      <trkpt lat="42.52081" lon="-0.13567">
        <ele>921.5</ele>
        <time>2017-08-13T08:02:03Z</time>
      </trkpt>
      <trkpt lat="42.52084" lon="-0.13569">
        <ele>921.8</ele>
        <time>2017-08-13T08:02:04Z</time>
      </trkpt>
      <trkpt lat="42.52087" lon="-0.13573">
        <ele>922</ele>
        <time>2017-08-13T08:02:05Z</time>
      </trkpt>
      <trkpt lat="42.5209" lon="-0.13575">
        <ele>922.1</ele>
        <time>2017-08-13T08:02:06Z</time>
      </trkpt>
      <trkpt lat="42.52092" lon="-0.13577">
        <ele>922.2</ele>
        <time>2017-08-13T08:02:07Z</time>
      </trkpt>
      <trkpt lat="42.52095" lon="-0.1358">
        <ele>922.3</ele>
        <time>2017-08-13T08:02:08Z</time>
      </trkpt>
      <trkpt lat="42.52098" lon="-0.13582">
        <ele>922.4</ele>
        <time>2017-08-13T08:02:09Z</time>
      </trkpt>
      <trkpt lat="42.52101" lon="-0.13584">
        <ele>922.5</ele>
        <time>2017-08-13T08:02:10Z</time>
      </trkpt>
      <trkpt lat="42.52104" lon="-0.13587">
        <ele>922.6</ele>
        <time>2017-08-13T08:02:11Z</time>
      </trkpt>
      <trkpt lat="42.52107" lon="-0.13589">
        <ele>922.6</ele>
        <time>2017-08-13T08:02:12Z</time>
      </trkpt>
      <trkpt lat="42.5211" lon="-0.13592">
        <ele>922.7</ele>
        <time>2017-08-13T08:02:13Z</time>
      </trkpt>
      <trkpt lat="42.52113" lon="-0.13594">
        <ele>922.8</ele>
        <time>2017-08-13T08:02:14Z</time>
      </trkpt>
      <trkpt lat="42.52116" lon="-0.13596">
        <ele>923</ele>
        <time>2017-08-13T08:02:15Z</time>
      </trkpt>
      <trkpt lat="42.52119" lon="-0.13598">
        <ele>923.1</ele>
        <time>2017-08-13T08:02:16Z</time>
      </trkpt>
      <trkpt lat="42.52122" lon="-0.13601">
        <ele>923.3</ele>
        <time>2017-08-13T08:02:17Z</time>
      </trkpt>
      <trkpt lat="42.52125" lon="-0.13602">
        <ele>923.6</ele>
        <time>2017-08-13T08:02:18Z</time>
      </trkpt>
      <trkpt lat="42.52128" lon="-0.13604">
        <ele>923.9</ele>
        <time>2017-08-13T08:02:19Z</time>
      </trkpt>
      <trkpt lat="42.52131" lon="-0.13607">
        <ele>924.2</ele>
        <time>2017-08-13T08:02:20Z</time>
      </trkpt>
      <trkpt lat="42.52134" lon="-0.13609">
        <ele>924.2</ele>
        <time>2017-08-13T08:02:21Z</time>
      </trkpt>
      <trkpt lat="42.52137" lon="-0.13611">
        <ele>924.3</ele>
        <time>2017-08-13T08:02:22Z</time>
      </trkpt>
      <trkpt lat="42.5214" lon="-0.13612">
        <ele>924.4</ele>
        <time>2017-08-13T08:02:23Z</time>
      </trkpt>
      <trkpt lat="42.52143" lon="-0.13614">
        <ele>924.5</ele>
        <time>2017-08-13T08:02:24Z</time>
      </trkpt>
      <trkpt lat="42.52146" lon="-0.13617">
        <ele>924.5</ele>
        <time>2017-08-13T08:02:25Z</time>
      </trkpt>
      <trkpt lat="42.52149" lon="-0.1362">
        <ele>924.6</ele>
        <time>2017-08-13T08:02:26Z</time>
      </trkpt>
      <trkpt lat="42.52151" lon="-0.13623">
        <ele>924.7</ele>
        <time>2017-08-13T08:02:27Z</time>
      </trkpt>
      <trkpt lat="42.52153" lon="-0.13626">
        <ele>924.8</ele>
        <time>2017-08-13T08:02:28Z</time>
      </trkpt>
      <trkpt lat="42.52155" lon="-0.13629">
        <ele>924.9</ele>
        <time>2017-08-13T08:02:29Z</time>
      </trkpt>
      <trkpt lat="42.52157" lon="-0.13633">
        <ele>925</ele>
        <time>2017-08-13T08:02:30Z</time>
      </trkpt>
      <trkpt lat="42.5216" lon="-0.13637">
        <ele>925</ele>
        <time>2017-08-13T08:02:31Z</time>
      </trkpt>
      <trkpt lat="42.52161" lon="-0.1364">
        <ele>925.1</ele>
        <time>2017-08-13T08:02:32Z</time>
      </trkpt>
      <trkpt lat="42.52163" lon="-0.13644">
        <ele>925.3</ele>
        <time>2017-08-13T08:02:33Z</time>
      </trkpt>
      <trkpt lat="42.52165" lon="-0.13648">
        <ele>925.4</ele>
        <time>2017-08-13T08:02:34Z</time>
      </trkpt>
      <trkpt lat="42.52167" lon="-0.13652">
        <ele>925.7</ele>
        <time>2017-08-13T08:02:35Z</time>
      </trkpt>
      <trkpt lat="42.52168" lon="-0.13656">
        <ele>926</ele>
        <time>2017-08-13T08:02:36Z</time>
      </trkpt>
      <trkpt lat="42.52169" lon="-0.1366">
        <ele>926.3</ele>
        <time>2017-08-13T08:02:37Z</time>
      </trkpt>
      <trkpt lat="42.5217" lon="-0.13664">
        <ele>926.6</ele>
        <time>2017-08-13T08:02:38Z</time>
      </trkpt>
      <trkpt lat="42.5217" lon="-0.13668">
        <ele>926.7</ele>
        <time>2017-08-13T08:02:39Z</time>
      </trkpt>
      <trkpt lat="42.52171" lon="-0.13672">
        <ele>926.8</ele>
        <time>2017-08-13T08:02:40Z</time>
      </trkpt>
      <trkpt lat="42.52171" lon="-0.13676">
        <ele>927</ele>
        <time>2017-08-13T08:02:41Z</time>
      </trkpt>
      <trkpt lat="42.52173" lon="-0.1368">
        <ele>927.1</ele>
        <time>2017-08-13T08:02:42Z</time>
      </trkpt>
      <trkpt lat="42.52175" lon="-0.13683">
        <ele>927.3</ele>
        <time>2017-08-13T08:02:43Z</time>
      </trkpt>
      <trkpt lat="42.52177" lon="-0.13686">
        <ele>927.5</ele>
        <time>2017-08-13T08:02:44Z</time>
      </trkpt>
      <trkpt lat="42.52181" lon="-0.13687">
        <ele>928</ele>
        <time>2017-08-13T08:02:45Z</time>
      </trkpt>
      <trkpt lat="42.52184" lon="-0.13687">
        <ele>928.4</ele>
        <time>2017-08-13T08:02:46Z</time>
      </trkpt>
      <trkpt lat="42.52188" lon="-0.13685">
        <ele>928.5</ele>
        <time>2017-08-13T08:02:47Z</time>
      </trkpt>
      <trkpt lat="42.52192" lon="-0.13683">
        <ele>928.7</ele>
        <time>2017-08-13T08:02:48Z</time>
      </trkpt>
      <trkpt lat="42.52195" lon="-0.13681">
        <ele>928.8</ele>
        <time>2017-08-13T08:02:49Z</time>
      </trkpt>
      <trkpt lat="42.52199" lon="-0.1368">
        <ele>928.8</ele>
        <time>2017-08-13T08:02:50Z</time>
      </trkpt>
      <trkpt lat="42.52203" lon="-0.1368">
        <ele>928.8</ele>
        <time>2017-08-13T08:02:51Z</time>
      </trkpt>
      <trkpt lat="42.52208" lon="-0.1368">
        <ele>928.9</ele>
        <time>2017-08-13T08:02:52Z</time>
      </trkpt>
      <trkpt lat="42.52213" lon="-0.13684">
        <ele>928.9</ele>
        <time>2017-08-13T08:02:53Z</time>
      </trkpt>
      <trkpt lat="42.52217" lon="-0.13686">
        <ele>928.9</ele>
        <time>2017-08-13T08:02:54Z</time>
      </trkpt>
      <trkpt lat="42.52222" lon="-0.13689">
        <ele>928.9</ele>
        <time>2017-08-13T08:02:55Z</time>
      </trkpt>
      <trkpt lat="42.52227" lon="-0.13691">
        <ele>928.9</ele>
        <time>2017-08-13T08:02:56Z</time>
      </trkpt>
      <trkpt lat="42.52232" lon="-0.13694">
        <ele>929</ele>
        <time>2017-08-13T08:02:57Z</time>
      </trkpt>
      <trkpt lat="42.52237" lon="-0.13697">
        <ele>929</ele>
        <time>2017-08-13T08:02:58Z</time>
      </trkpt>
      <trkpt lat="42.52241" lon="-0.137">
        <ele>929</ele>
        <time>2017-08-13T08:02:59Z</time>
      </trkpt>
      <trkpt lat="42.52245" lon="-0.13705">
        <ele>929</ele>
        <time>2017-08-13T08:03:00Z</time>
      </trkpt>
      <trkpt lat="42.5225" lon="-0.1371">
        <ele>929</ele>
        <time>2017-08-13T08:03:01Z</time>
      </trkpt>
      <trkpt lat="42.52256" lon="-0.13713">
        <ele>928.9</ele>
        <time>2017-08-13T08:03:02Z</time>
      </trkpt>
      <trkpt lat="42.52262" lon="-0.13717">
        <ele>928.9</ele>
        <time>2017-08-13T08:03:03Z</time>
      </trkpt>
      <trkpt lat="42.52265" lon="-0.13724">
        <ele>928.9</ele>
        <time>2017-08-13T08:03:04Z</time>
      </trkpt>
      <trkpt lat="42.52269" lon="-0.13731">
        <ele>928.9</ele>
        <time>2017-08-13T08:03:05Z</time>
      </trkpt>
      <trkpt lat="42.52273" lon="-0.13737">
        <ele>928.9</ele>
        <time>2017-08-13T08:03:06Z</time>
      </trkpt>
      <trkpt lat="42.52274" lon="-0.13743">
        <ele>928.8</ele>
        <time>2017-08-13T08:03:07Z</time>
      </trkpt>
      <trkpt lat="42.52276" lon="-0.1375">
        <ele>928.8</ele>
        <time>2017-08-13T08:03:08Z</time>
      </trkpt>
      <trkpt lat="42.52279" lon="-0.13758">
        <ele>928.7</ele>
        <time>2017-08-13T08:03:09Z</time>
      </trkpt>
      <trkpt lat="42.52281" lon="-0.13765">
        <ele>928.6</ele>
        <time>2017-08-13T08:03:10Z</time>
      </trkpt>
      <trkpt lat="42.52283" lon="-0.13774">
        <ele>928.5</ele>
        <time>2017-08-13T08:03:11Z</time>
      </trkpt>
      <trkpt lat="42.52285" lon="-0.13782">
        <ele>928.4</ele>
        <time>2017-08-13T08:03:12Z</time>
      </trkpt>
      <trkpt lat="42.52286" lon="-0.13791">
        <ele>928.3</ele>
        <time>2017-08-13T08:03:13Z</time>
      </trkpt>
      <trkpt lat="42.52289" lon="-0.13798">
        <ele>928.1</ele>
        <time>2017-08-13T08:03:14Z</time>
      </trkpt>
      <trkpt lat="42.52291" lon="-0.13805">
        <ele>927.8</ele>
        <time>2017-08-13T08:03:15Z</time>
      </trkpt>
      <trkpt lat="42.52296" lon="-0.1381">
        <ele>927.5</ele>
        <time>2017-08-13T08:03:16Z</time>
      </trkpt>
      <trkpt lat="42.52301" lon="-0.13814">
        <ele>927.2</ele>
        <time>2017-08-13T08:03:17Z</time>
      </trkpt>
      <trkpt lat="42.52308" lon="-0.13814">
        <ele>926.9</ele>
        <time>2017-08-13T08:03:18Z</time>
      </trkpt>
      <trkpt lat="42.52314" lon="-0.13812">
        <ele>926.6</ele>
        <time>2017-08-13T08:03:19Z</time>
      </trkpt>
      <trkpt lat="42.52322" lon="-0.13809">
        <ele>926.2</ele>
        <time>2017-08-13T08:03:20Z</time>
      </trkpt>
      <trkpt lat="42.5233" lon="-0.13806">
        <ele>925.8</ele>
        <time>2017-08-13T08:03:21Z</time>
      </trkpt>
      <trkpt lat="42.52338" lon="-0.13803">
        <ele>925.3</ele>
        <time>2017-08-13T08:03:22Z</time>
      </trkpt>
      <trkpt lat="42.52343" lon="-0.138">
        <ele>925.2</ele>
        <time>2017-08-13T08:03:23Z</time>
      </trkpt>
      <trkpt lat="42.52349" lon="-0.13797">
        <ele>925.1</ele>
        <time>2017-08-13T08:03:24Z</time>
      </trkpt>
      <trkpt lat="42.52356" lon="-0.13796">
        <ele>924.9</ele>
        <time>2017-08-13T08:03:25Z</time>
      </trkpt>
      <trkpt lat="42.52364" lon="-0.13796">
        <ele>924.7</ele>
        <time>2017-08-13T08:03:26Z</time>
      </trkpt>
      <trkpt lat="42.5237" lon="-0.13796">
        <ele>924.6</ele>
        <time>2017-08-13T08:03:27Z</time>
      </trkpt>
      <trkpt lat="42.52377" lon="-0.13798">
        <ele>924.4</ele>
        <time>2017-08-13T08:03:28Z</time>
      </trkpt>
      <trkpt lat="42.52383" lon="-0.13803">
        <ele>924.1</ele>
        <time>2017-08-13T08:03:29Z</time>
      </trkpt>
      <trkpt lat="42.52386" lon="-0.1381">
        <ele>923.9</ele>
        <time>2017-08-13T08:03:30Z</time>
      </trkpt>
      <trkpt lat="42.52388" lon="-0.13816">
        <ele>923.8</ele>
        <time>2017-08-13T08:03:31Z</time>
      </trkpt>
      <trkpt lat="42.5239" lon="-0.13822">
        <ele>923.7</ele>
        <time>2017-08-13T08:03:32Z</time>
      </trkpt>
      <trkpt lat="42.52391" lon="-0.13827">
        <ele>923.5</ele>
        <time>2017-08-13T08:03:33Z</time>
      </trkpt>
      <trkpt lat="42.52393" lon="-0.13833">
        <ele>923.4</ele>
        <time>2017-08-13T08:03:34Z</time>
      </trkpt>
      <trkpt lat="42.52395" lon="-0.13837">
        <ele>923.3</ele>
        <time>2017-08-13T08:03:35Z</time>
      </trkpt>
      <trkpt lat="42.52396" lon="-0.13842">
        <ele>923.4</ele>
        <time>2017-08-13T08:03:36Z</time>
      </trkpt>
      <trkpt lat="42.52399" lon="-0.13846">
        <ele>923.4</ele>
        <time>2017-08-13T08:03:37Z</time>
      </trkpt>
      <trkpt lat="42.52401" lon="-0.1385">
        <ele>923.5</ele>
        <time>2017-08-13T08:03:38Z</time>
      </trkpt>
      <trkpt lat="42.52403" lon="-0.13853">
        <ele>923.5</ele>
        <time>2017-08-13T08:03:39Z</time>
      </trkpt>
      <trkpt lat="42.52405" lon="-0.13857">
        <ele>923.6</ele>
        <time>2017-08-13T08:03:40Z</time>
      </trkpt>
      <trkpt lat="42.52409" lon="-0.13862">
        <ele>923.7</ele>
        <time>2017-08-13T08:03:42Z</time>
      </trkpt>
      <trkpt lat="42.52412" lon="-0.13867">
        <ele>924</ele>
        <time>2017-08-13T08:03:44Z</time>
      </trkpt>
      <trkpt lat="42.52414" lon="-0.1387">
        <ele>924.3</ele>
        <time>2017-08-13T08:03:45Z</time>
      </trkpt>
      <trkpt lat="42.52419" lon="-0.13874">
        <ele>925</ele>
        <time>2017-08-13T08:03:47Z</time>
      </trkpt>
      <trkpt lat="42.52421" lon="-0.13877">
        <ele>925.2</ele>
        <time>2017-08-13T08:03:48Z</time>
      </trkpt>
      <trkpt lat="42.52424" lon="-0.13879">
        <ele>925.4</ele>
        <time>2017-08-13T08:03:49Z</time>
      </trkpt>
      <trkpt lat="42.52426" lon="-0.13881">
        <ele>925.6</ele>
        <time>2017-08-13T08:03:50Z</time>
      </trkpt>
      <trkpt lat="42.52429" lon="-0.13883">
        <ele>925.7</ele>
        <time>2017-08-13T08:03:51Z</time>
      </trkpt>
      <trkpt lat="42.52432" lon="-0.13884">
        <ele>926.1</ele>
        <time>2017-08-13T08:03:52Z</time>
      </trkpt>
      <trkpt lat="42.52434" lon="-0.13885">
        <ele>926.4</ele>
        <time>2017-08-13T08:03:53Z</time>
      </trkpt>
      <trkpt lat="42.52437" lon="-0.13885">
        <ele>926.8</ele>
        <time>2017-08-13T08:03:54Z</time>
      </trkpt>
      <trkpt lat="42.5244" lon="-0.13884">
        <ele>927.2</ele>
        <time>2017-08-13T08:03:55Z</time>
      </trkpt>
      <trkpt lat="42.52443" lon="-0.13883">
        <ele>927.5</ele>
        <time>2017-08-13T08:03:56Z</time>
      </trkpt>
      <trkpt lat="42.52446" lon="-0.13881">
        <ele>927.7</ele>
        <time>2017-08-13T08:03:57Z</time>
      </trkpt>
      <trkpt lat="42.52448" lon="-0.1388">
        <ele>927.8</ele>
        <time>2017-08-13T08:03:58Z</time>
      </trkpt>
      <trkpt lat="42.52451" lon="-0.13878">
        <ele>928</ele>
        <time>2017-08-13T08:03:59Z</time>
      </trkpt>
      <trkpt lat="42.52454" lon="-0.13876">
        <ele>928.1</ele>
        <time>2017-08-13T08:04:00Z</time>
      </trkpt>
      <trkpt lat="42.52456" lon="-0.13875">
        <ele>928.2</ele>
        <time>2017-08-13T08:04:01Z</time>
      </trkpt>
      <trkpt lat="42.52459" lon="-0.13874">
        <ele>928.4</ele>
        <time>2017-08-13T08:04:02Z</time>
      </trkpt>
      <trkpt lat="42.52462" lon="-0.13874">
        <ele>928.7</ele>
        <time>2017-08-13T08:04:03Z</time>
      </trkpt>
      <trkpt lat="42.52465" lon="-0.13874">
        <ele>929</ele>
        <time>2017-08-13T08:04:04Z</time>
      </trkpt>
      <trkpt lat="42.52468" lon="-0.13876">
        <ele>929.3</ele>
        <time>2017-08-13T08:04:05Z</time>
      </trkpt>
      <trkpt lat="42.52471" lon="-0.13878">
        <ele>929.6</ele>
        <time>2017-08-13T08:04:06Z</time>
      </trkpt>
      <trkpt lat="42.52473" lon="-0.1388">
        <ele>929.7</ele>
        <time>2017-08-13T08:04:07Z</time>
      </trkpt>
      <trkpt lat="42.52476" lon="-0.13882">
        <ele>929.9</ele>
        <time>2017-08-13T08:04:08Z</time>
      </trkpt>
      <trkpt lat="42.52478" lon="-0.13884">
        <ele>930</ele>
        <time>2017-08-13T08:04:09Z</time>
      </trkpt>
      <trkpt lat="42.52481" lon="-0.13885">
        <ele>930.1</ele>
        <time>2017-08-13T08:04:10Z</time>
      </trkpt>
      <trkpt lat="42.52483" lon="-0.13887">
        <ele>930.2</ele>
        <time>2017-08-13T08:04:11Z</time>
      </trkpt>
      <trkpt lat="42.52486" lon="-0.13889">
        <ele>930.3</ele>
        <time>2017-08-13T08:04:12Z</time>
      </trkpt>
      <trkpt lat="42.52488" lon="-0.13891">
        <ele>930.5</ele>
        <time>2017-08-13T08:04:13Z</time>
      </trkpt>
      <trkpt lat="42.5249" lon="-0.13893">
        <ele>930.8</ele>
        <time>2017-08-13T08:04:14Z</time>
      </trkpt>
      <trkpt lat="42.52493" lon="-0.13895">
        <ele>931.1</ele>
        <time>2017-08-13T08:04:15Z</time>
      </trkpt>
      <trkpt lat="42.52495" lon="-0.13897">
        <ele>931.5</ele>
        <time>2017-08-13T08:04:16Z</time>
      </trkpt>
      <trkpt lat="42.52498" lon="-0.13899">
        <ele>931.9</ele>
        <time>2017-08-13T08:04:17Z</time>
      </trkpt>
      <trkpt lat="42.525" lon="-0.13901">
        <ele>932.1</ele>
        <time>2017-08-13T08:04:18Z</time>
      </trkpt>
      <trkpt lat="42.52503" lon="-0.13902">
        <ele>932.3</ele>
        <time>2017-08-13T08:04:19Z</time>
      </trkpt>
      <trkpt lat="42.52506" lon="-0.13903">
        <ele>932.5</ele>
        <time>2017-08-13T08:04:20Z</time>
      </trkpt>
      <trkpt lat="42.52508" lon="-0.13903">
        <ele>932.7</ele>
        <time>2017-08-13T08:04:21Z</time>
      </trkpt>
      <trkpt lat="42.52513" lon="-0.13904">
        <ele>933.1</ele>
        <time>2017-08-13T08:04:23Z</time>
      </trkpt>
      <trkpt lat="42.52516" lon="-0.13905">
        <ele>933.5</ele>
        <time>2017-08-13T08:04:24Z</time>
      </trkpt>
      <trkpt lat="42.52521" lon="-0.13907">
        <ele>934.1</ele>
        <time>2017-08-13T08:04:26Z</time>
      </trkpt>
      <trkpt lat="42.52526" lon="-0.1391">
        <ele>934.4</ele>
        <time>2017-08-13T08:04:28Z</time>
      </trkpt>
      <trkpt lat="42.52529" lon="-0.13915">
        <ele>934.6</ele>
        <time>2017-08-13T08:04:30Z</time>
      </trkpt>
      <trkpt lat="42.52532" lon="-0.13921">
        <ele>935</ele>
        <time>2017-08-13T08:04:32Z</time>
      </trkpt>
      <trkpt lat="42.52535" lon="-0.13927">
        <ele>935.7</ele>
        <time>2017-08-13T08:04:34Z</time>
      </trkpt>
      <trkpt lat="42.52538" lon="-0.13932">
        <ele>936.3</ele>
        <time>2017-08-13T08:04:36Z</time>
      </trkpt>
      <trkpt lat="42.52541" lon="-0.13937">
        <ele>936.8</ele>
        <time>2017-08-13T08:04:38Z</time>
      </trkpt>
      <trkpt lat="42.52543" lon="-0.13942">
        <ele>937.1</ele>
        <time>2017-08-13T08:04:40Z</time>
      </trkpt>
      <trkpt lat="42.52546" lon="-0.13947">
        <ele>937.4</ele>
        <time>2017-08-13T08:04:42Z</time>
      </trkpt>
      <trkpt lat="42.52549" lon="-0.13952">
        <ele>937.6</ele>
        <time>2017-08-13T08:04:44Z</time>
      </trkpt>
      <trkpt lat="42.52552" lon="-0.13957">
        <ele>938.2</ele>
        <time>2017-08-13T08:04:46Z</time>
      </trkpt>
      <trkpt lat="42.52555" lon="-0.13961">
        <ele>938.7</ele>
        <time>2017-08-13T08:04:48Z</time>
      </trkpt>
      <trkpt lat="42.52558" lon="-0.13965">
        <ele>939</ele>
        <time>2017-08-13T08:04:50Z</time>
      </trkpt>
      <trkpt lat="42.52561" lon="-0.13969">
        <ele>939.3</ele>
        <time>2017-08-13T08:04:52Z</time>
      </trkpt>
      <trkpt lat="42.52564" lon="-0.13973">
        <ele>939.8</ele>
        <time>2017-08-13T08:04:54Z</time>
      </trkpt>
      <trkpt lat="42.52566" lon="-0.13977">
        <ele>940.5</ele>
        <time>2017-08-13T08:04:56Z</time>
      </trkpt>
      <trkpt lat="42.52569" lon="-0.13981">
        <ele>941.1</ele>
        <time>2017-08-13T08:04:58Z</time>
      </trkpt>
      <trkpt lat="42.52572" lon="-0.13985">
        <ele>941.4</ele>
        <time>2017-08-13T08:05:00Z</time>
      </trkpt>
      <trkpt lat="42.52575" lon="-0.13989">
        <ele>941.8</ele>
        <time>2017-08-13T08:05:02Z</time>
      </trkpt>
      <trkpt lat="42.52578" lon="-0.13993">
        <ele>942.3</ele>
        <time>2017-08-13T08:05:04Z</time>
      </trkpt>
      <trkpt lat="42.52581" lon="-0.13998">
        <ele>942.9</ele>
        <time>2017-08-13T08:05:06Z</time>
      </trkpt>
      <trkpt lat="42.52583" lon="-0.14002">
        <ele>943.4</ele>
        <time>2017-08-13T08:05:08Z</time>
      </trkpt>
      <trkpt lat="42.52585" lon="-0.14006">
        <ele>943.9</ele>
        <time>2017-08-13T08:05:10Z</time>
      </trkpt>
      <trkpt lat="42.52589" lon="-0.14009">
        <ele>944.3</ele>
        <time>2017-08-13T08:05:12Z</time>
      </trkpt>
      <trkpt lat="42.52593" lon="-0.14012">
        <ele>945</ele>
        <time>2017-08-13T08:05:14Z</time>
      </trkpt>
      <trkpt lat="42.52597" lon="-0.14015">
        <ele>945.7</ele>
        <time>2017-08-13T08:05:16Z</time>
      </trkpt>
      <trkpt lat="42.52601" lon="-0.14017">
        <ele>946</ele>
        <time>2017-08-13T08:05:18Z</time>
      </trkpt>
      <trkpt lat="42.52605" lon="-0.14017">
        <ele>946.4</ele>
        <time>2017-08-13T08:05:20Z</time>
      </trkpt>
      <trkpt lat="42.52609" lon="-0.14016">
        <ele>947</ele>
        <time>2017-08-13T08:05:22Z</time>
      </trkpt>
      <trkpt lat="42.52614" lon="-0.14015">
        <ele>947.6</ele>
        <time>2017-08-13T08:05:24Z</time>
      </trkpt>
      <trkpt lat="42.52619" lon="-0.14012">
        <ele>948</ele>
        <time>2017-08-13T08:05:26Z</time>
      </trkpt>
      <trkpt lat="42.52622" lon="-0.1401">
        <ele>948.2</ele>
        <time>2017-08-13T08:05:27Z</time>
      </trkpt>
      <trkpt lat="42.52624" lon="-0.14008">
        <ele>948.4</ele>
        <time>2017-08-13T08:05:28Z</time>
      </trkpt>
      <trkpt lat="42.52628" lon="-0.14004">
        <ele>948.8</ele>
        <time>2017-08-13T08:05:30Z</time>
      </trkpt>
      <trkpt lat="42.52633" lon="-0.14001">
        <ele>949.4</ele>
        <time>2017-08-13T08:05:32Z</time>
      </trkpt>
      <trkpt lat="42.52638" lon="-0.13999">
        <ele>949.8</ele>
        <time>2017-08-13T08:05:34Z</time>
      </trkpt>
      <trkpt lat="42.5264" lon="-0.13998">
        <ele>949.9</ele>
        <time>2017-08-13T08:05:35Z</time>
      </trkpt>
      <trkpt lat="42.52643" lon="-0.13997">
        <ele>950.1</ele>
        <time>2017-08-13T08:05:36Z</time>
      </trkpt>
      <trkpt lat="42.52646" lon="-0.13997">
        <ele>950.2</ele>
        <time>2017-08-13T08:05:37Z</time>
      </trkpt>
      <trkpt lat="42.52651" lon="-0.13996">
        <ele>950.4</ele>
        <time>2017-08-13T08:05:39Z</time>
      </trkpt>
      <trkpt lat="42.52657" lon="-0.13995">
        <ele>950.6</ele>
        <time>2017-08-13T08:05:41Z</time>
      </trkpt>
      <trkpt lat="42.52662" lon="-0.13994">
        <ele>950.8</ele>
        <time>2017-08-13T08:05:43Z</time>
      </trkpt>
      <trkpt lat="42.52667" lon="-0.13995">
        <ele>951.2</ele>
        <time>2017-08-13T08:05:45Z</time>
      </trkpt>
      <trkpt lat="42.52672" lon="-0.13996">
        <ele>951.7</ele>
        <time>2017-08-13T08:05:47Z</time>
      </trkpt>
      <trkpt lat="42.52676" lon="-0.13998">
        <ele>952.2</ele>
        <time>2017-08-13T08:05:49Z</time>
      </trkpt>
      <trkpt lat="42.5268" lon="-0.14001">
        <ele>952.4</ele>
        <time>2017-08-13T08:05:51Z</time>
      </trkpt>
      <trkpt lat="42.52684" lon="-0.14004">
        <ele>952.6</ele>
        <time>2017-08-13T08:05:53Z</time>
      </trkpt>
      <trkpt lat="42.52688" lon="-0.14008">
        <ele>952.8</ele>
        <time>2017-08-13T08:05:55Z</time>
      </trkpt>
      <trkpt lat="42.52692" lon="-0.14011">
        <ele>953.1</ele>
        <time>2017-08-13T08:05:57Z</time>
      </trkpt>
      <trkpt lat="42.52696" lon="-0.14014">
        <ele>953.6</ele>
        <time>2017-08-13T08:05:59Z</time>
      </trkpt>
      <trkpt lat="42.52698" lon="-0.14016">
        <ele>953.9</ele>
        <time>2017-08-13T08:06:00Z</time>
      </trkpt>
      <trkpt lat="42.52703" lon="-0.1402">
        <ele>954.2</ele>
        <time>2017-08-13T08:06:02Z</time>
      </trkpt>
      <trkpt lat="42.52707" lon="-0.14024">
        <ele>954.5</ele>
        <time>2017-08-13T08:06:04Z</time>
      </trkpt>
      <trkpt lat="42.52711" lon="-0.14028">
        <ele>955.1</ele>
        <time>2017-08-13T08:06:06Z</time>
      </trkpt>
      <trkpt lat="42.52716" lon="-0.14032">
        <ele>956</ele>
        <time>2017-08-13T08:06:08Z</time>
      </trkpt>
      <trkpt lat="42.5272" lon="-0.14036">
        <ele>956.7</ele>
        <time>2017-08-13T08:06:10Z</time>
      </trkpt>
      <trkpt lat="42.52725" lon="-0.14039">
        <ele>957.1</ele>
        <time>2017-08-13T08:06:12Z</time>
      </trkpt>
      <trkpt lat="42.52728" lon="-0.14041">
        <ele>957.3</ele>
        <time>2017-08-13T08:06:13Z</time>
      </trkpt>
      <trkpt lat="42.52732" lon="-0.14042">
        <ele>958.1</ele>
        <time>2017-08-13T08:06:15Z</time>
      </trkpt>
      <trkpt lat="42.52737" lon="-0.14043">
        <ele>958.8</ele>
        <time>2017-08-13T08:06:17Z</time>
      </trkpt>
      <trkpt lat="42.52741" lon="-0.14044">
        <ele>959.2</ele>
        <time>2017-08-13T08:06:19Z</time>
      </trkpt>
      <trkpt lat="42.52746" lon="-0.14043">
        <ele>959.5</ele>
        <time>2017-08-13T08:06:21Z</time>
      </trkpt>
      <trkpt lat="42.5275" lon="-0.14043">
        <ele>960.2</ele>
        <time>2017-08-13T08:06:23Z</time>
      </trkpt>
      <trkpt lat="42.52755" lon="-0.14042">
        <ele>960.8</ele>
        <time>2017-08-13T08:06:25Z</time>
      </trkpt>
      <trkpt lat="42.52759" lon="-0.14042">
        <ele>961.2</ele>
        <time>2017-08-13T08:06:27Z</time>
      </trkpt>
      <trkpt lat="42.52763" lon="-0.14042">
        <ele>961.6</ele>
        <time>2017-08-13T08:06:29Z</time>
      </trkpt>
      <trkpt lat="42.52768" lon="-0.14043">
        <ele>962</ele>
        <time>2017-08-13T08:06:31Z</time>
      </trkpt>
      <trkpt lat="42.52772" lon="-0.14044">
        <ele>962.7</ele>
        <time>2017-08-13T08:06:33Z</time>
      </trkpt>
      <trkpt lat="42.52777" lon="-0.14045">
        <ele>963.1</ele>
        <time>2017-08-13T08:06:35Z</time>
      </trkpt>
      <trkpt lat="42.52781" lon="-0.14047">
        <ele>963.4</ele>
        <time>2017-08-13T08:06:37Z</time>
      </trkpt>
      <trkpt lat="42.52785" lon="-0.14049">
        <ele>963.8</ele>
        <time>2017-08-13T08:06:39Z</time>
      </trkpt>
      <trkpt lat="42.5279" lon="-0.14051">
        <ele>964.4</ele>
        <time>2017-08-13T08:06:41Z</time>
      </trkpt>
      <trkpt lat="42.52795" lon="-0.14054">
        <ele>965</ele>
        <time>2017-08-13T08:06:43Z</time>
      </trkpt>
      <trkpt lat="42.52797" lon="-0.14056">
        <ele>965.1</ele>
        <time>2017-08-13T08:06:44Z</time>
      </trkpt>
      <trkpt lat="42.528" lon="-0.14058">
        <ele>965.1</ele>
        <time>2017-08-13T08:06:45Z</time>
      </trkpt>
      <trkpt lat="42.52804" lon="-0.14062">
        <ele>965.2</ele>
        <time>2017-08-13T08:06:47Z</time>
      </trkpt>
      <trkpt lat="42.52806" lon="-0.14065">
        <ele>965.2</ele>
        <time>2017-08-13T08:06:48Z</time>
      </trkpt>
      <trkpt lat="42.52808" lon="-0.14067">
        <ele>965.3</ele>
        <time>2017-08-13T08:06:49Z</time>
      </trkpt>
      <trkpt lat="42.52811" lon="-0.1407">
        <ele>965.3</ele>
        <time>2017-08-13T08:06:50Z</time>
      </trkpt>
      <trkpt lat="42.52813" lon="-0.14073">
        <ele>965.3</ele>
        <time>2017-08-13T08:06:51Z</time>
      </trkpt>
      <trkpt lat="42.52816" lon="-0.14077">
        <ele>965.4</ele>
        <time>2017-08-13T08:06:52Z</time>
      </trkpt>
      <trkpt lat="42.52818" lon="-0.14081">
        <ele>965.4</ele>
        <time>2017-08-13T08:06:53Z</time>
      </trkpt>
      <trkpt lat="42.5282" lon="-0.14085">
        <ele>965.4</ele>
        <time>2017-08-13T08:06:54Z</time>
      </trkpt>
      <trkpt lat="42.52822" lon="-0.14088">
        <ele>965.4</ele>
        <time>2017-08-13T08:06:55Z</time>
      </trkpt>
      <trkpt lat="42.52824" lon="-0.14093">
        <ele>965.4</ele>
        <time>2017-08-13T08:06:56Z</time>
      </trkpt>
      <trkpt lat="42.52826" lon="-0.14098">
        <ele>965.5</ele>
        <time>2017-08-13T08:06:57Z</time>
      </trkpt>
      <trkpt lat="42.52828" lon="-0.14103">
        <ele>965.5</ele>
        <time>2017-08-13T08:06:58Z</time>
      </trkpt>
      <trkpt lat="42.5283" lon="-0.14108">
        <ele>965.5</ele>
        <time>2017-08-13T08:06:59Z</time>
      </trkpt>
      <trkpt lat="42.52831" lon="-0.14114">
        <ele>965.5</ele>
        <time>2017-08-13T08:07:00Z</time>
      </trkpt>
      <trkpt lat="42.52832" lon="-0.1412">
        <ele>965.5</ele>
        <time>2017-08-13T08:07:01Z</time>
      </trkpt>
      <trkpt lat="42.52833" lon="-0.14126">
        <ele>965.5</ele>
        <time>2017-08-13T08:07:02Z</time>
      </trkpt>
      <trkpt lat="42.52834" lon="-0.14133">
        <ele>965.5</ele>
        <time>2017-08-13T08:07:03Z</time>
      </trkpt>
      <trkpt lat="42.52835" lon="-0.1414">
        <ele>965.5</ele>
        <time>2017-08-13T08:07:04Z</time>
      </trkpt>
      <trkpt lat="42.52836" lon="-0.14147">
        <ele>965.5</ele>
        <time>2017-08-13T08:07:05Z</time>
      </trkpt>
      <trkpt lat="42.52837" lon="-0.14154">
        <ele>965.5</ele>
        <time>2017-08-13T08:07:06Z</time>
      </trkpt>
      <trkpt lat="42.5284" lon="-0.1416">
        <ele>965.5</ele>
        <time>2017-08-13T08:07:07Z</time>
      </trkpt>
      <trkpt lat="42.52843" lon="-0.14165">
        <ele>965.6</ele>
        <time>2017-08-13T08:07:08Z</time>
      </trkpt>
      <trkpt lat="42.52847" lon="-0.14169">
        <ele>965.6</ele>
        <time>2017-08-13T08:07:09Z</time>
      </trkpt>
      <trkpt lat="42.52852" lon="-0.14172">
        <ele>965.6</ele>
        <time>2017-08-13T08:07:10Z</time>
      </trkpt>
      <trkpt lat="42.52857" lon="-0.14174">
        <ele>965.7</ele>
        <time>2017-08-13T08:07:11Z</time>
      </trkpt>
      <trkpt lat="42.52862" lon="-0.14175">
        <ele>965.8</ele>
        <time>2017-08-13T08:07:12Z</time>
      </trkpt>
      <trkpt lat="42.52867" lon="-0.14177">
        <ele>965.9</ele>
        <time>2017-08-13T08:07:13Z</time>
      </trkpt>
      <trkpt lat="42.52872" lon="-0.14179">
        <ele>966.1</ele>
        <time>2017-08-13T08:07:14Z</time>
      </trkpt>
      <trkpt lat="42.52877" lon="-0.14181">
        <ele>966.2</ele>
        <time>2017-08-13T08:07:15Z</time>
      </trkpt>
      <trkpt lat="42.52881" lon="-0.14183">
        <ele>966.3</ele>
        <time>2017-08-13T08:07:16Z</time>
      </trkpt>
      <trkpt lat="42.52884" lon="-0.14185">
        <ele>966.5</ele>
        <time>2017-08-13T08:07:17Z</time>
      </trkpt>
      <trkpt lat="42.52888" lon="-0.14187">
        <ele>966.8</ele>
        <time>2017-08-13T08:07:18Z</time>
      </trkpt>
      <trkpt lat="42.52891" lon="-0.14189">
        <ele>967</ele>
        <time>2017-08-13T08:07:19Z</time>
      </trkpt>
      <trkpt lat="42.52894" lon="-0.1419">
        <ele>967.3</ele>
        <time>2017-08-13T08:07:20Z</time>
      </trkpt>
      <trkpt lat="42.52897" lon="-0.14192">
        <ele>967.5</ele>
        <time>2017-08-13T08:07:21Z</time>
      </trkpt>
      <trkpt lat="42.529" lon="-0.14195">
        <ele>967.6</ele>
        <time>2017-08-13T08:07:22Z</time>
      </trkpt>
      <trkpt lat="42.52903" lon="-0.14199">
        <ele>967.7</ele>
        <time>2017-08-13T08:07:23Z</time>
      </trkpt>
      <trkpt lat="42.52905" lon="-0.14204">
        <ele>967.8</ele>
        <time>2017-08-13T08:07:24Z</time>
      </trkpt>
      <trkpt lat="42.52907" lon="-0.14208">
        <ele>967.8</ele>
        <time>2017-08-13T08:07:25Z</time>
      </trkpt>
      <trkpt lat="42.52909" lon="-0.14214">
        <ele>967.9</ele>
        <time>2017-08-13T08:07:26Z</time>
      </trkpt>
      <trkpt lat="42.52911" lon="-0.14219">
        <ele>967.9</ele>
        <time>2017-08-13T08:07:27Z</time>
      </trkpt>
      <trkpt lat="42.52913" lon="-0.14225">
        <ele>968</ele>
        <time>2017-08-13T08:07:28Z</time>
      </trkpt>
      <trkpt lat="42.52915" lon="-0.1423">
        <ele>968</ele>
        <time>2017-08-13T08:07:29Z</time>
      </trkpt>
      <trkpt lat="42.52917" lon="-0.14236">
        <ele>968.1</ele>
        <time>2017-08-13T08:07:30Z</time>
      </trkpt>
      <trkpt lat="42.52919" lon="-0.14242">
        <ele>968.1</ele>
        <time>2017-08-13T08:07:31Z</time>
      </trkpt>
      <trkpt lat="42.52922" lon="-0.14247">
        <ele>968.2</ele>
        <time>2017-08-13T08:07:32Z</time>
      </trkpt>
      <trkpt lat="42.52924" lon="-0.14253">
        <ele>968.2</ele>
        <time>2017-08-13T08:07:33Z</time>
      </trkpt>
      <trkpt lat="42.52927" lon="-0.14258">
        <ele>968.3</ele>
        <time>2017-08-13T08:07:34Z</time>
      </trkpt>
      <trkpt lat="42.5293" lon="-0.14263">
        <ele>968.4</ele>
        <time>2017-08-13T08:07:35Z</time>
      </trkpt>
      <trkpt lat="42.52933" lon="-0.14269">
        <ele>968.5</ele>
        <time>2017-08-13T08:07:36Z</time>
      </trkpt>
      <trkpt lat="42.52935" lon="-0.14274">
        <ele>968.6</ele>
        <time>2017-08-13T08:07:37Z</time>
      </trkpt>
      <trkpt lat="42.52938" lon="-0.14279">
        <ele>968.8</ele>
        <time>2017-08-13T08:07:38Z</time>
      </trkpt>
      <trkpt lat="42.5294" lon="-0.14284">
        <ele>969.1</ele>
        <time>2017-08-13T08:07:39Z</time>
      </trkpt>
      <trkpt lat="42.52942" lon="-0.1429">
        <ele>969.3</ele>
        <time>2017-08-13T08:07:40Z</time>
      </trkpt>
      <trkpt lat="42.52944" lon="-0.14295">
        <ele>969.6</ele>
        <time>2017-08-13T08:07:41Z</time>
      </trkpt>
      <trkpt lat="42.52946" lon="-0.14301">
        <ele>969.6</ele>
        <time>2017-08-13T08:07:42Z</time>
      </trkpt>
      <trkpt lat="42.52948" lon="-0.14306">
        <ele>969.7</ele>
        <time>2017-08-13T08:07:43Z</time>
      </trkpt>
      <trkpt lat="42.5295" lon="-0.14312">
        <ele>969.8</ele>
        <time>2017-08-13T08:07:44Z</time>
      </trkpt>
      <trkpt lat="42.52953" lon="-0.14317">
        <ele>969.8</ele>
        <time>2017-08-13T08:07:45Z</time>
      </trkpt>
      <trkpt lat="42.52956" lon="-0.14322">
        <ele>969.9</ele>
        <time>2017-08-13T08:07:46Z</time>
      </trkpt>
      <trkpt lat="42.52959" lon="-0.14327">
        <ele>969.9</ele>
        <time>2017-08-13T08:07:47Z</time>
      </trkpt>
      <trkpt lat="42.52963" lon="-0.14331">
        <ele>970</ele>
        <time>2017-08-13T08:07:48Z</time>
      </trkpt>
      <trkpt lat="42.52967" lon="-0.14335">
        <ele>970</ele>
        <time>2017-08-13T08:07:49Z</time>
      </trkpt>
      <trkpt lat="42.5297" lon="-0.14339">
        <ele>970.1</ele>
        <time>2017-08-13T08:07:50Z</time>
      </trkpt>
      <trkpt lat="42.52974" lon="-0.14343">
        <ele>970.1</ele>
        <time>2017-08-13T08:07:51Z</time>
      </trkpt>
      <trkpt lat="42.52978" lon="-0.14347">
        <ele>970.1</ele>
        <time>2017-08-13T08:07:52Z</time>
      </trkpt>
      <trkpt lat="42.52982" lon="-0.14352">
        <ele>970.1</ele>
        <time>2017-08-13T08:07:53Z</time>
      </trkpt>
      <trkpt lat="42.52985" lon="-0.14358">
        <ele>970.1</ele>
        <time>2017-08-13T08:07:54Z</time>
      </trkpt>
      <trkpt lat="42.52988" lon="-0.14364">
        <ele>970.1</ele>
        <time>2017-08-13T08:07:55Z</time>
      </trkpt>
      <trkpt lat="42.52991" lon="-0.14371">
        <ele>970.1</ele>
        <time>2017-08-13T08:07:56Z</time>
      </trkpt>
      <trkpt lat="42.52993" lon="-0.14379">
        <ele>970.1</ele>
        <time>2017-08-13T08:07:57Z</time>
      </trkpt>
      <trkpt lat="42.52996" lon="-0.14387">
        <ele>970</ele>
        <time>2017-08-13T08:07:58Z</time>
      </trkpt>
      <trkpt lat="42.52998" lon="-0.14395">
        <ele>970</ele>
        <time>2017-08-13T08:07:59Z</time>
      </trkpt>
      <trkpt lat="42.53001" lon="-0.14403">
        <ele>970</ele>
        <time>2017-08-13T08:08:00Z</time>
      </trkpt>
      <trkpt lat="42.53005" lon="-0.14411">
        <ele>970</ele>
        <time>2017-08-13T08:08:01Z</time>
      </trkpt>
      <trkpt lat="42.53009" lon="-0.14418">
        <ele>969.9</ele>
        <time>2017-08-13T08:08:02Z</time>
      </trkpt>
      <trkpt lat="42.53014" lon="-0.14425">
        <ele>969.9</ele>
        <time>2017-08-13T08:08:03Z</time>
      </trkpt>
      <trkpt lat="42.53019" lon="-0.14431">
        <ele>969.8</ele>
        <time>2017-08-13T08:08:04Z</time>
      </trkpt>
      <trkpt lat="42.53024" lon="-0.14438">
        <ele>969.8</ele>
        <time>2017-08-13T08:08:05Z</time>
      </trkpt>
      <trkpt lat="42.53029" lon="-0.14444">
        <ele>969.7</ele>
        <time>2017-08-13T08:08:06Z</time>
      </trkpt>
      <trkpt lat="42.53034" lon="-0.14449">
        <ele>969.6</ele>
        <time>2017-08-13T08:08:07Z</time>
      </trkpt>
      <trkpt lat="42.53038" lon="-0.14454">
        <ele>969.4</ele>
        <time>2017-08-13T08:08:08Z</time>
      </trkpt>
      <trkpt lat="42.53044" lon="-0.14458">
        <ele>969.1</ele>
        <time>2017-08-13T08:08:09Z</time>
      </trkpt>
      <trkpt lat="42.5305" lon="-0.14462">
        <ele>968.8</ele>
        <time>2017-08-13T08:08:10Z</time>
      </trkpt>
      <trkpt lat="42.53055" lon="-0.14467">
        <ele>968.6</ele>
        <time>2017-08-13T08:08:11Z</time>
      </trkpt>
      <trkpt lat="42.53057" lon="-0.14473">
        <ele>968.4</ele>
        <time>2017-08-13T08:08:12Z</time>
      </trkpt>
      <trkpt lat="42.5306" lon="-0.14478">
        <ele>968.3</ele>
        <time>2017-08-13T08:08:13Z</time>
      </trkpt>
      <trkpt lat="42.53063" lon="-0.14484">
        <ele>968.2</ele>
        <time>2017-08-13T08:08:14Z</time>
      </trkpt>
      <trkpt lat="42.53065" lon="-0.1449">
        <ele>968.2</ele>
        <time>2017-08-13T08:08:15Z</time>
      </trkpt>
      <trkpt lat="42.53069" lon="-0.14495">
        <ele>968.2</ele>
        <time>2017-08-13T08:08:16Z</time>
      </trkpt>
      <trkpt lat="42.53071" lon="-0.145">
        <ele>968.2</ele>
        <time>2017-08-13T08:08:17Z</time>
      </trkpt>
      <trkpt lat="42.53074" lon="-0.14504">
        <ele>968.1</ele>
        <time>2017-08-13T08:08:18Z</time>
      </trkpt>
      <trkpt lat="42.53076" lon="-0.1451">
        <ele>968.1</ele>
        <time>2017-08-13T08:08:19Z</time>
      </trkpt>
      <trkpt lat="42.53079" lon="-0.14515">
        <ele>968.2</ele>
        <time>2017-08-13T08:08:20Z</time>
      </trkpt>
      <trkpt lat="42.53081" lon="-0.14519">
        <ele>968.2</ele>
        <time>2017-08-13T08:08:21Z</time>
      </trkpt>
      <trkpt lat="42.53082" lon="-0.14524">
        <ele>968.3</ele>
        <time>2017-08-13T08:08:22Z</time>
      </trkpt>
      <trkpt lat="42.53083" lon="-0.14528">
        <ele>968.3</ele>
        <time>2017-08-13T08:08:23Z</time>
      </trkpt>
      <trkpt lat="42.53085" lon="-0.14533">
        <ele>968.4</ele>
        <time>2017-08-13T08:08:24Z</time>
      </trkpt>
      <trkpt lat="42.53086" lon="-0.14537">
        <ele>968.4</ele>
        <time>2017-08-13T08:08:25Z</time>
      </trkpt>
      <trkpt lat="42.53088" lon="-0.14541">
        <ele>968.5</ele>
        <time>2017-08-13T08:08:26Z</time>
      </trkpt>
      <trkpt lat="42.5309" lon="-0.14545">
        <ele>968.6</ele>
        <time>2017-08-13T08:08:27Z</time>
      </trkpt>
      <trkpt lat="42.53092" lon="-0.14548">
        <ele>968.7</ele>
        <time>2017-08-13T08:08:28Z</time>
      </trkpt>
      <trkpt lat="42.53094" lon="-0.14551">
        <ele>968.8</ele>
        <time>2017-08-13T08:08:29Z</time>
      </trkpt>
      <trkpt lat="42.53098" lon="-0.14556">
        <ele>969.4</ele>
        <time>2017-08-13T08:08:31Z</time>
      </trkpt>
      <trkpt lat="42.53102" lon="-0.14559">
        <ele>970.1</ele>
        <time>2017-08-13T08:08:33Z</time>
      </trkpt>
      <trkpt lat="42.53106" lon="-0.14562">
        <ele>970.8</ele>
        <time>2017-08-13T08:08:35Z</time>
      </trkpt>
      <trkpt lat="42.53111" lon="-0.14563">
        <ele>971.6</ele>
        <time>2017-08-13T08:08:37Z</time>
      </trkpt>
      <trkpt lat="42.53116" lon="-0.14565">
        <ele>972.5</ele>
        <time>2017-08-13T08:08:39Z</time>
      </trkpt>
      <trkpt lat="42.53119" lon="-0.14565">
        <ele>972.8</ele>
        <time>2017-08-13T08:08:40Z</time>
      </trkpt>
      <trkpt lat="42.53122" lon="-0.14567">
        <ele>973</ele>
        <time>2017-08-13T08:08:41Z</time>
      </trkpt>
      <trkpt lat="42.53124" lon="-0.14569">
        <ele>973.3</ele>
        <time>2017-08-13T08:08:42Z</time>
      </trkpt>
      <trkpt lat="42.53128" lon="-0.14571">
        <ele>973.9</ele>
        <time>2017-08-13T08:08:44Z</time>
      </trkpt>
      <trkpt lat="42.53132" lon="-0.14574">
        <ele>974.5</ele>
        <time>2017-08-13T08:08:46Z</time>
      </trkpt>
      <trkpt lat="42.53135" lon="-0.14578">
        <ele>974.9</ele>
        <time>2017-08-13T08:08:48Z</time>
      </trkpt>
      <trkpt lat="42.53137" lon="-0.14582">
        <ele>975.3</ele>
        <time>2017-08-13T08:08:50Z</time>
      </trkpt>
      <trkpt lat="42.5314" lon="-0.14586">
        <ele>975.9</ele>
        <time>2017-08-13T08:08:52Z</time>
      </trkpt>
      <trkpt lat="42.53143" lon="-0.1459">
        <ele>976.6</ele>
        <time>2017-08-13T08:08:54Z</time>
      </trkpt>
      <trkpt lat="42.53147" lon="-0.14594">
        <ele>977</ele>
        <time>2017-08-13T08:08:56Z</time>
      </trkpt>
      <trkpt lat="42.5315" lon="-0.14597">
        <ele>977.3</ele>
        <time>2017-08-13T08:08:58Z</time>
      </trkpt>
      <trkpt lat="42.53154" lon="-0.14601">
        <ele>977.6</ele>
        <time>2017-08-13T08:09:00Z</time>
      </trkpt>
      <trkpt lat="42.53157" lon="-0.14605">
        <ele>978.3</ele>
        <time>2017-08-13T08:09:02Z</time>
      </trkpt>
      <trkpt lat="42.53161" lon="-0.14607">
        <ele>978.9</ele>
        <time>2017-08-13T08:09:04Z</time>
      </trkpt>
      <trkpt lat="42.53164" lon="-0.1461">
        <ele>979.2</ele>
        <time>2017-08-13T08:09:06Z</time>
      </trkpt>
      <trkpt lat="42.53167" lon="-0.14613">
        <ele>979.5</ele>
        <time>2017-08-13T08:09:08Z</time>
      </trkpt>
      <trkpt lat="42.5317" lon="-0.14615">
        <ele>979.9</ele>
        <time>2017-08-13T08:09:10Z</time>
      </trkpt>
      <trkpt lat="42.53174" lon="-0.14617">
        <ele>980.6</ele>
        <time>2017-08-13T08:09:12Z</time>
      </trkpt>
      <trkpt lat="42.53178" lon="-0.14618">
        <ele>981.3</ele>
        <time>2017-08-13T08:09:14Z</time>
      </trkpt>
      <trkpt lat="42.53181" lon="-0.14619">
        <ele>981.9</ele>
        <time>2017-08-13T08:09:16Z</time>
      </trkpt>
      <trkpt lat="42.53186" lon="-0.1462">
        <ele>982.4</ele>
        <time>2017-08-13T08:09:18Z</time>
      </trkpt>
      <trkpt lat="42.53189" lon="-0.14621">
        <ele>983.2</ele>
        <time>2017-08-13T08:09:20Z</time>
      </trkpt>
      <trkpt lat="42.53194" lon="-0.14623">
        <ele>983.9</ele>
        <time>2017-08-13T08:09:22Z</time>
      </trkpt>
      <trkpt lat="42.53198" lon="-0.14625">
        <ele>984.3</ele>
        <time>2017-08-13T08:09:24Z</time>
      </trkpt>
      <trkpt lat="42.53201" lon="-0.14626">
        <ele>984.7</ele>
        <time>2017-08-13T08:09:26Z</time>
      </trkpt>
      <trkpt lat="42.53205" lon="-0.14627">
        <ele>985.4</ele>
        <time>2017-08-13T08:09:28Z</time>
      </trkpt>
      <trkpt lat="42.53208" lon="-0.14628">
        <ele>986</ele>
        <time>2017-08-13T08:09:30Z</time>
      </trkpt>
      <trkpt lat="42.53211" lon="-0.1463">
        <ele>986.5</ele>
        <time>2017-08-13T08:09:32Z</time>
      </trkpt>
      <trkpt lat="42.53215" lon="-0.14631">
        <ele>986.9</ele>
        <time>2017-08-13T08:09:34Z</time>
      </trkpt>
      <trkpt lat="42.53218" lon="-0.14633">
        <ele>987.4</ele>
        <time>2017-08-13T08:09:36Z</time>
      </trkpt>
      <trkpt lat="42.53222" lon="-0.14635">
        <ele>988.1</ele>
        <time>2017-08-13T08:09:38Z</time>
      </trkpt>
      <trkpt lat="42.53225" lon="-0.14636">
        <ele>988.5</ele>
        <time>2017-08-13T08:09:40Z</time>
      </trkpt>
      <trkpt lat="42.53229" lon="-0.14637">
        <ele>988.7</ele>
        <time>2017-08-13T08:09:42Z</time>
      </trkpt>
      <trkpt lat="42.53232" lon="-0.14639">
        <ele>989</ele>
        <time>2017-08-13T08:09:44Z</time>
      </trkpt>
      <trkpt lat="42.53235" lon="-0.1464">
        <ele>989.5</ele>
        <time>2017-08-13T08:09:46Z</time>
      </trkpt>
      <trkpt lat="42.53238" lon="-0.14643">
        <ele>990</ele>
        <time>2017-08-13T08:09:48Z</time>
      </trkpt>
      <trkpt lat="42.53241" lon="-0.14646">
        <ele>990.5</ele>
        <time>2017-08-13T08:09:50Z</time>
      </trkpt>
      <trkpt lat="42.53244" lon="-0.14649">
        <ele>990.7</ele>
        <time>2017-08-13T08:09:52Z</time>
      </trkpt>
      <trkpt lat="42.53247" lon="-0.14652">
        <ele>990.9</ele>
        <time>2017-08-13T08:09:54Z</time>
      </trkpt>
      <trkpt lat="42.53249" lon="-0.14655">
        <ele>991.1</ele>
        <time>2017-08-13T08:09:56Z</time>
      </trkpt>
      <trkpt lat="42.53251" lon="-0.14659">
        <ele>991.5</ele>
        <time>2017-08-13T08:09:58Z</time>
      </trkpt>
      <trkpt lat="42.53254" lon="-0.14663">
        <ele>992.1</ele>
        <time>2017-08-13T08:10:00Z</time>
      </trkpt>
      <trkpt lat="42.53256" lon="-0.14667">
        <ele>992.6</ele>
        <time>2017-08-13T08:10:02Z</time>
      </trkpt>
      <trkpt lat="42.53258" lon="-0.1467">
        <ele>992.9</ele>
        <time>2017-08-13T08:10:04Z</time>
      </trkpt>
      <trkpt lat="42.53261" lon="-0.14674">
        <ele>993.2</ele>
        <time>2017-08-13T08:10:06Z</time>
      </trkpt>
      <trkpt lat="42.53264" lon="-0.14677">
        <ele>993.5</ele>
        <time>2017-08-13T08:10:08Z</time>
      </trkpt>
      <trkpt lat="42.53266" lon="-0.14681">
        <ele>994</ele>
        <time>2017-08-13T08:10:10Z</time>
      </trkpt>
      <trkpt lat="42.53269" lon="-0.14685">
        <ele>994.5</ele>
        <time>2017-08-13T08:10:12Z</time>
      </trkpt>
      <trkpt lat="42.53272" lon="-0.14688">
        <ele>994.9</ele>
        <time>2017-08-13T08:10:14Z</time>
      </trkpt>
      <trkpt lat="42.53275" lon="-0.14691">
        <ele>995.2</ele>
        <time>2017-08-13T08:10:16Z</time>
      </trkpt>
      <trkpt lat="42.53277" lon="-0.14694">
        <ele>995.4</ele>
        <time>2017-08-13T08:10:18Z</time>
      </trkpt>
      <trkpt lat="42.5328" lon="-0.14698">
        <ele>996</ele>
        <time>2017-08-13T08:10:20Z</time>
      </trkpt>
      <trkpt lat="42.53283" lon="-0.14701">
        <ele>996.6</ele>
        <time>2017-08-13T08:10:22Z</time>
      </trkpt>
      <trkpt lat="42.53285" lon="-0.14703">
        <ele>997.1</ele>
        <time>2017-08-13T08:10:24Z</time>
      </trkpt>
      <trkpt lat="42.53289" lon="-0.14706">
        <ele>997.5</ele>
        <time>2017-08-13T08:10:26Z</time>
      </trkpt>
      <trkpt lat="42.53292" lon="-0.14709">
        <ele>998</ele>
        <time>2017-08-13T08:10:28Z</time>
      </trkpt>
      <trkpt lat="42.53295" lon="-0.14713">
        <ele>998.7</ele>
        <time>2017-08-13T08:10:30Z</time>
      </trkpt>
      <trkpt lat="42.53298" lon="-0.14715">
        <ele>999.2</ele>
        <time>2017-08-13T08:10:32Z</time>
      </trkpt>
      <trkpt lat="42.533" lon="-0.14717">
        <ele>999.5</ele>
        <time>2017-08-13T08:10:34Z</time>
      </trkpt>
      <trkpt lat="42.53304" lon="-0.14719">
        <ele>999.8</ele>
        <time>2017-08-13T08:10:36Z</time>
      </trkpt>
      <trkpt lat="42.53306" lon="-0.14721">
        <ele>1000.1</ele>
        <time>2017-08-13T08:10:38Z</time>
      </trkpt>
      <trkpt lat="42.53309" lon="-0.14724">
        <ele>1000.5</ele>
        <time>2017-08-13T08:10:40Z</time>
      </trkpt>
      <trkpt lat="42.53312" lon="-0.14726">
        <ele>1001.1</ele>
        <time>2017-08-13T08:10:42Z</time>
      </trkpt>
      <trkpt lat="42.53315" lon="-0.14728">
        <ele>1001.6</ele>
        <time>2017-08-13T08:10:44Z</time>
      </trkpt>
      <trkpt lat="42.53318" lon="-0.14731">
        <ele>1001.9</ele>
        <time>2017-08-13T08:10:46Z</time>
      </trkpt>
      <trkpt lat="42.5332" lon="-0.14734">
        <ele>1002.3</ele>
        <time>2017-08-13T08:10:48Z</time>
      </trkpt>
      <trkpt lat="42.53323" lon="-0.14737">
        <ele>1002.9</ele>
        <time>2017-08-13T08:10:50Z</time>
      </trkpt>
      <trkpt lat="42.53327" lon="-0.1474">
        <ele>1003.3</ele>
        <time>2017-08-13T08:10:52Z</time>
      </trkpt>
      <trkpt lat="42.53329" lon="-0.14744">
        <ele>1003.6</ele>
        <time>2017-08-13T08:10:54Z</time>
      </trkpt>
      <trkpt lat="42.53332" lon="-0.14747">
        <ele>1003.8</ele>
        <time>2017-08-13T08:10:56Z</time>
      </trkpt>
      <trkpt lat="42.53334" lon="-0.14751">
        <ele>1004</ele>
        <time>2017-08-13T08:10:58Z</time>
      </trkpt>
      <trkpt lat="42.53337" lon="-0.14755">
        <ele>1004.3</ele>
        <time>2017-08-13T08:11:00Z</time>
      </trkpt>
      <trkpt lat="42.53339" lon="-0.14759">
        <ele>1004.9</ele>
        <time>2017-08-13T08:11:02Z</time>
      </trkpt>
      <trkpt lat="42.53342" lon="-0.14762">
        <ele>1005.5</ele>
        <time>2017-08-13T08:11:04Z</time>
      </trkpt>
      <trkpt lat="42.53345" lon="-0.14766">
        <ele>1005.9</ele>
        <time>2017-08-13T08:11:06Z</time>
      </trkpt>
      <trkpt lat="42.53347" lon="-0.1477">
        <ele>1006.2</ele>
        <time>2017-08-13T08:11:08Z</time>
      </trkpt>
      <trkpt lat="42.53349" lon="-0.14773">
        <ele>1006.5</ele>
        <time>2017-08-13T08:11:10Z</time>
      </trkpt>
      <trkpt lat="42.53352" lon="-0.14777">
        <ele>1007</ele>
        <time>2017-08-13T08:11:12Z</time>
      </trkpt>
      <trkpt lat="42.53355" lon="-0.14781">
        <ele>1007.6</ele>
        <time>2017-08-13T08:11:14Z</time>
      </trkpt>
      <trkpt lat="42.53357" lon="-0.14786">
        <ele>1008</ele>
        <time>2017-08-13T08:11:16Z</time>
      </trkpt>
      <trkpt lat="42.53359" lon="-0.1479">
        <ele>1008.4</ele>
        <time>2017-08-13T08:11:18Z</time>
      </trkpt>
      <trkpt lat="42.53361" lon="-0.14795">
        <ele>1008.7</ele>
        <time>2017-08-13T08:11:20Z</time>
      </trkpt>
      <trkpt lat="42.53364" lon="-0.14799">
        <ele>1009.1</ele>
        <time>2017-08-13T08:11:22Z</time>
      </trkpt>
      <trkpt lat="42.53366" lon="-0.14804">
        <ele>1009.8</ele>
        <time>2017-08-13T08:11:24Z</time>
      </trkpt>
      <trkpt lat="42.53368" lon="-0.14809">
        <ele>1010.3</ele>
        <time>2017-08-13T08:11:26Z</time>
      </trkpt>
      <trkpt lat="42.53371" lon="-0.14815">
        <ele>1010.6</ele>
        <time>2017-08-13T08:11:28Z</time>
      </trkpt>
      <trkpt lat="42.53373" lon="-0.14821">
        <ele>1011</ele>
        <time>2017-08-13T08:11:30Z</time>
      </trkpt>
      <trkpt lat="42.53376" lon="-0.14826">
        <ele>1011.7</ele>
        <time>2017-08-13T08:11:32Z</time>
      </trkpt>
      <trkpt lat="42.53379" lon="-0.14831">
        <ele>1012.4</ele>
        <time>2017-08-13T08:11:34Z</time>
      </trkpt>
      <trkpt lat="42.53382" lon="-0.14835">
        <ele>1012.8</ele>
        <time>2017-08-13T08:11:36Z</time>
      </trkpt>
      <trkpt lat="42.53385" lon="-0.14839">
        <ele>1013.2</ele>
        <time>2017-08-13T08:11:38Z</time>
      </trkpt>
      <trkpt lat="42.53388" lon="-0.14844">
        <ele>1013.7</ele>
        <time>2017-08-13T08:11:40Z</time>
      </trkpt>
      <trkpt lat="42.5339" lon="-0.14849">
        <ele>1014.4</ele>
        <time>2017-08-13T08:11:42Z</time>
      </trkpt>
      <trkpt lat="42.53392" lon="-0.14854">
        <ele>1014.8</ele>
        <time>2017-08-13T08:11:44Z</time>
      </trkpt>
      <trkpt lat="42.53393" lon="-0.14858">
        <ele>1015.1</ele>
        <time>2017-08-13T08:11:46Z</time>
      </trkpt>
      <trkpt lat="42.53395" lon="-0.14862">
        <ele>1015.4</ele>
        <time>2017-08-13T08:11:48Z</time>
      </trkpt>
      <trkpt lat="42.53396" lon="-0.14866">
        <ele>1015.8</ele>
        <time>2017-08-13T08:11:50Z</time>
      </trkpt>
      <trkpt lat="42.53397" lon="-0.14871">
        <ele>1016.5</ele>
        <time>2017-08-13T08:11:52Z</time>
      </trkpt>
      <trkpt lat="42.53398" lon="-0.14875">
        <ele>1017</ele>
        <time>2017-08-13T08:11:54Z</time>
      </trkpt>
      <trkpt lat="42.534" lon="-0.1488">
        <ele>1017.3</ele>
        <time>2017-08-13T08:11:56Z</time>
      </trkpt>
      <trkpt lat="42.53402" lon="-0.14884">
        <ele>1017.5</ele>
        <time>2017-08-13T08:11:58Z</time>
      </trkpt>
      <trkpt lat="42.53404" lon="-0.14889">
        <ele>1018.1</ele>
        <time>2017-08-13T08:12:00Z</time>
      </trkpt>
      <trkpt lat="42.53405" lon="-0.14893">
        <ele>1018.7</ele>
        <time>2017-08-13T08:12:02Z</time>
      </trkpt>
      <trkpt lat="42.53406" lon="-0.14897">
        <ele>1019</ele>
        <time>2017-08-13T08:12:04Z</time>
      </trkpt>
      <trkpt lat="42.53407" lon="-0.14901">
        <ele>1019.2</ele>
        <time>2017-08-13T08:12:06Z</time>
      </trkpt>
      <trkpt lat="42.53409" lon="-0.14905">
        <ele>1019.5</ele>
        <time>2017-08-13T08:12:08Z</time>
      </trkpt>
      <trkpt lat="42.53409" lon="-0.1491">
        <ele>1019.8</ele>
        <time>2017-08-13T08:12:10Z</time>
      </trkpt>
      <trkpt lat="42.5341" lon="-0.14915">
        <ele>1020</ele>
        <time>2017-08-13T08:12:12Z</time>
      </trkpt>
      <trkpt lat="42.53412" lon="-0.1492">
        <ele>1020.7</ele>
        <time>2017-08-13T08:12:14Z</time>
      </trkpt>
      <trkpt lat="42.53413" lon="-0.14924">
        <ele>1021.3</ele>
        <time>2017-08-13T08:12:16Z</time>
      </trkpt>
      <trkpt lat="42.53415" lon="-0.14929">
        <ele>1021.5</ele>
        <time>2017-08-13T08:12:18Z</time>
      </trkpt>
      <trkpt lat="42.53416" lon="-0.14933">
        <ele>1021.8</ele>
        <time>2017-08-13T08:12:20Z</time>
      </trkpt>
      <trkpt lat="42.53417" lon="-0.14938">
        <ele>1022</ele>
        <time>2017-08-13T08:12:22Z</time>
      </trkpt>
      <trkpt lat="42.53419" lon="-0.14943">
        <ele>1022.3</ele>
        <time>2017-08-13T08:12:24Z</time>
      </trkpt>
      <trkpt lat="42.5342" lon="-0.14947">
        <ele>1023</ele>
        <time>2017-08-13T08:12:26Z</time>
      </trkpt>
      <trkpt lat="42.53422" lon="-0.14952">
        <ele>1023.5</ele>
        <time>2017-08-13T08:12:28Z</time>
      </trkpt>
      <trkpt lat="42.53423" lon="-0.14957">
        <ele>1023.8</ele>
        <time>2017-08-13T08:12:30Z</time>
      </trkpt>
      <trkpt lat="42.53424" lon="-0.14962">
        <ele>1024.2</ele>
        <time>2017-08-13T08:12:32Z</time>
      </trkpt>
      <trkpt lat="42.53425" lon="-0.14967">
        <ele>1024.6</ele>
        <time>2017-08-13T08:12:34Z</time>
      </trkpt>
      <trkpt lat="42.53426" lon="-0.14972">
        <ele>1025.3</ele>
        <time>2017-08-13T08:12:36Z</time>
      </trkpt>
      <trkpt lat="42.53427" lon="-0.14977">
        <ele>1025.8</ele>
        <time>2017-08-13T08:12:38Z</time>
      </trkpt>
      <trkpt lat="42.53428" lon="-0.14982">
        <ele>1026.1</ele>
        <time>2017-08-13T08:12:40Z</time>
      </trkpt>
      <trkpt lat="42.53428" lon="-0.14987">
        <ele>1026.3</ele>
        <time>2017-08-13T08:12:42Z</time>
      </trkpt>
      <trkpt lat="42.53428" lon="-0.14992">
        <ele>1026.7</ele>
        <time>2017-08-13T08:12:44Z</time>
      </trkpt>
      <trkpt lat="42.53428" lon="-0.14998">
        <ele>1027.4</ele>
        <time>2017-08-13T08:12:46Z</time>
      </trkpt>
      <trkpt lat="42.53427" lon="-0.15004">
        <ele>1027.8</ele>
        <time>2017-08-13T08:12:48Z</time>
      </trkpt>
      <trkpt lat="42.53427" lon="-0.1501">
        <ele>1028.1</ele>
        <time>2017-08-13T08:12:50Z</time>
      </trkpt>
      <trkpt lat="42.53427" lon="-0.15016">
        <ele>1028.7</ele>
        <time>2017-08-13T08:12:52Z</time>
      </trkpt>
      <trkpt lat="42.53427" lon="-0.15022">
        <ele>1029.4</ele>
        <time>2017-08-13T08:12:54Z</time>
      </trkpt>
      <trkpt lat="42.53426" lon="-0.15028">
        <ele>1030.1</ele>
        <time>2017-08-13T08:12:56Z</time>
      </trkpt>
      <trkpt lat="42.53426" lon="-0.15035">
        <ele>1030.4</ele>
        <time>2017-08-13T08:12:58Z</time>
      </trkpt>
      <trkpt lat="42.53425" lon="-0.15041">
        <ele>1030.6</ele>
        <time>2017-08-13T08:13:00Z</time>
      </trkpt>
      <trkpt lat="42.53425" lon="-0.15047">
        <ele>1031</ele>
        <time>2017-08-13T08:13:02Z</time>
      </trkpt>
      <trkpt lat="42.53425" lon="-0.15053">
        <ele>1031.7</ele>
        <time>2017-08-13T08:13:04Z</time>
      </trkpt>
      <trkpt lat="42.53424" lon="-0.1506">
        <ele>1032.2</ele>
        <time>2017-08-13T08:13:06Z</time>
      </trkpt>
      <trkpt lat="42.53424" lon="-0.15066">
        <ele>1032.6</ele>
        <time>2017-08-13T08:13:08Z</time>
      </trkpt>
      <trkpt lat="42.53424" lon="-0.15072">
        <ele>1032.9</ele>
        <time>2017-08-13T08:13:10Z</time>
      </trkpt>
      <trkpt lat="42.53423" lon="-0.15078">
        <ele>1033.1</ele>
        <time>2017-08-13T08:13:12Z</time>
      </trkpt>
      <trkpt lat="42.53422" lon="-0.15085">
        <ele>1033.7</ele>
        <time>2017-08-13T08:13:14Z</time>
      </trkpt>
      <trkpt lat="42.53421" lon="-0.15091">
        <ele>1034.3</ele>
        <time>2017-08-13T08:13:16Z</time>
      </trkpt>
      <trkpt lat="42.53421" lon="-0.15097">
        <ele>1034.6</ele>
        <time>2017-08-13T08:13:18Z</time>
      </trkpt>
      <trkpt lat="42.53419" lon="-0.15103">
        <ele>1034.8</ele>
        <time>2017-08-13T08:13:20Z</time>
      </trkpt>
      <trkpt lat="42.53418" lon="-0.15109">
        <ele>1035.1</ele>
        <time>2017-08-13T08:13:22Z</time>
      </trkpt>
      <trkpt lat="42.53416" lon="-0.15115">
        <ele>1035.4</ele>
        <time>2017-08-13T08:13:24Z</time>
      </trkpt>
      <trkpt lat="42.53416" lon="-0.15121">
        <ele>1035.9</ele>
        <time>2017-08-13T08:13:26Z</time>
      </trkpt>
      <trkpt lat="42.53415" lon="-0.15128">
        <ele>1036.5</ele>
        <time>2017-08-13T08:13:28Z</time>
      </trkpt>
      <trkpt lat="42.53414" lon="-0.15134">
        <ele>1036.8</ele>
        <time>2017-08-13T08:13:30Z</time>
      </trkpt>
      <trkpt lat="42.53413" lon="-0.15141">
        <ele>1037.1</ele>
        <time>2017-08-13T08:13:32Z</time>
      </trkpt>
      <trkpt lat="42.53412" lon="-0.15148">
        <ele>1037.4</ele>
        <time>2017-08-13T08:13:34Z</time>
      </trkpt>
      <trkpt lat="42.53411" lon="-0.15155">
        <ele>1037.9</ele>
        <time>2017-08-13T08:13:36Z</time>
      </trkpt>
      <trkpt lat="42.53411" lon="-0.15161">
        <ele>1038.6</ele>
        <time>2017-08-13T08:13:38Z</time>
      </trkpt>
      <trkpt lat="42.53412" lon="-0.15168">
        <ele>1038.9</ele>
        <time>2017-08-13T08:13:40Z</time>
      </trkpt>
      <trkpt lat="42.53412" lon="-0.15174">
        <ele>1039.1</ele>
        <time>2017-08-13T08:13:42Z</time>
      </trkpt>
      <trkpt lat="42.53414" lon="-0.15181">
        <ele>1039.4</ele>
        <time>2017-08-13T08:13:44Z</time>
      </trkpt>
      <trkpt lat="42.53415" lon="-0.15187">
        <ele>1039.9</ele>
        <time>2017-08-13T08:13:46Z</time>
      </trkpt>
      <trkpt lat="42.53416" lon="-0.15194">
        <ele>1040.5</ele>
        <time>2017-08-13T08:13:48Z</time>
      </trkpt>
      <trkpt lat="42.53417" lon="-0.15201">
        <ele>1041</ele>
        <time>2017-08-13T08:13:50Z</time>
      </trkpt>
      <trkpt lat="42.53417" lon="-0.15207">
        <ele>1041.3</ele>
        <time>2017-08-13T08:13:52Z</time>
      </trkpt>
      <trkpt lat="42.53418" lon="-0.15214">
        <ele>1041.5</ele>
        <time>2017-08-13T08:13:54Z</time>
      </trkpt>
      <trkpt lat="42.53419" lon="-0.1522">
        <ele>1041.7</ele>
        <time>2017-08-13T08:13:56Z</time>
      </trkpt>
      <trkpt lat="42.53418" lon="-0.15227">
        <ele>1041.9</ele>
        <time>2017-08-13T08:13:58Z</time>
      </trkpt>
      <trkpt lat="42.53416" lon="-0.15234">
        <ele>1042.5</ele>
        <time>2017-08-13T08:14:00Z</time>
      </trkpt>
      <trkpt lat="42.53413" lon="-0.15239">
        <ele>1043.1</ele>
        <time>2017-08-13T08:14:02Z</time>
      </trkpt>
      <trkpt lat="42.5341" lon="-0.15245">
        <ele>1043.3</ele>
        <time>2017-08-13T08:14:04Z</time>
      </trkpt>
      <trkpt lat="42.53407" lon="-0.15249">
        <ele>1043.6</ele>
        <time>2017-08-13T08:14:06Z</time>
      </trkpt>
      <trkpt lat="42.53405" lon="-0.15254">
        <ele>1043.8</ele>
        <time>2017-08-13T08:14:08Z</time>
      </trkpt>
      <trkpt lat="42.53402" lon="-0.15259">
        <ele>1044</ele>
        <time>2017-08-13T08:14:10Z</time>
      </trkpt>
      <trkpt lat="42.53399" lon="-0.15263">
        <ele>1044.2</ele>
        <time>2017-08-13T08:14:12Z</time>
      </trkpt>
      <trkpt lat="42.53396" lon="-0.15267">
        <ele>1044.8</ele>
        <time>2017-08-13T08:14:14Z</time>
      </trkpt>
      <trkpt lat="42.53392" lon="-0.15271">
        <ele>1045.3</ele>
        <time>2017-08-13T08:14:16Z</time>
      </trkpt>
      <trkpt lat="42.53389" lon="-0.15275">
        <ele>1045.6</ele>
        <time>2017-08-13T08:14:18Z</time>
      </trkpt>
      <trkpt lat="42.53386" lon="-0.15278">
        <ele>1045.9</ele>
        <time>2017-08-13T08:14:20Z</time>
      </trkpt>
      <trkpt lat="42.53383" lon="-0.1528">
        <ele>1046</ele>
        <time>2017-08-13T08:14:21Z</time>
      </trkpt>
      <trkpt lat="42.5338" lon="-0.15281">
        <ele>1046.4</ele>
        <time>2017-08-13T08:14:22Z</time>
      </trkpt>
      <trkpt lat="42.53377" lon="-0.15283">
        <ele>1046.8</ele>
        <time>2017-08-13T08:14:23Z</time>
      </trkpt>
      <trkpt lat="42.53375" lon="-0.15284">
        <ele>1047.2</ele>
        <time>2017-08-13T08:14:24Z</time>
      </trkpt>
      <trkpt lat="42.53371" lon="-0.15288">
        <ele>1047.8</ele>
        <time>2017-08-13T08:14:26Z</time>
      </trkpt>
      <trkpt lat="42.53366" lon="-0.15292">
        <ele>1048.3</ele>
        <time>2017-08-13T08:14:28Z</time>
      </trkpt>
      <trkpt lat="42.53361" lon="-0.15296">
        <ele>1048.9</ele>
        <time>2017-08-13T08:14:30Z</time>
      </trkpt>
      <trkpt lat="42.53359" lon="-0.15297">
        <ele>1049.4</ele>
        <time>2017-08-13T08:14:31Z</time>
      </trkpt>
      <trkpt lat="42.53356" lon="-0.15299">
        <ele>1049.8</ele>
        <time>2017-08-13T08:14:32Z</time>
      </trkpt>
      <trkpt lat="42.53352" lon="-0.15302">
        <ele>1050.2</ele>
        <time>2017-08-13T08:14:34Z</time>
      </trkpt>
      <trkpt lat="42.53347" lon="-0.15305">
        <ele>1050.5</ele>
        <time>2017-08-13T08:14:36Z</time>
      </trkpt>
      <trkpt lat="42.53345" lon="-0.15307">
        <ele>1050.7</ele>
        <time>2017-08-13T08:14:37Z</time>
      </trkpt>
      <trkpt lat="42.53342" lon="-0.15309">
        <ele>1051.1</ele>
        <time>2017-08-13T08:14:38Z</time>
      </trkpt>
      <trkpt lat="42.5334" lon="-0.15311">
        <ele>1051.4</ele>
        <time>2017-08-13T08:14:39Z</time>
      </trkpt>
      <trkpt lat="42.53337" lon="-0.15313">
        <ele>1051.7</ele>
        <time>2017-08-13T08:14:40Z</time>
      </trkpt>
      <trkpt lat="42.53335" lon="-0.15314">
        <ele>1052</ele>
        <time>2017-08-13T08:14:41Z</time>
      </trkpt>
      <trkpt lat="42.53331" lon="-0.15318">
        <ele>1052.2</ele>
        <time>2017-08-13T08:14:43Z</time>
      </trkpt>
      <trkpt lat="42.53326" lon="-0.15322">
        <ele>1052.3</ele>
        <time>2017-08-13T08:14:45Z</time>
      </trkpt>
      <trkpt lat="42.53323" lon="-0.15325">
        <ele>1052.4</ele>
        <time>2017-08-13T08:14:46Z</time>
      </trkpt>
      <trkpt lat="42.53321" lon="-0.15328">
        <ele>1052.5</ele>
        <time>2017-08-13T08:14:47Z</time>
      </trkpt>
      <trkpt lat="42.5332" lon="-0.15331">
        <ele>1052.6</ele>
        <time>2017-08-13T08:14:48Z</time>
      </trkpt>
      <trkpt lat="42.53319" lon="-0.15335">
        <ele>1052.7</ele>
        <time>2017-08-13T08:14:49Z</time>
      </trkpt>
      <trkpt lat="42.53318" lon="-0.15338">
        <ele>1052.8</ele>
        <time>2017-08-13T08:14:50Z</time>
      </trkpt>
      <trkpt lat="42.53319" lon="-0.15342">
        <ele>1053</ele>
        <time>2017-08-13T08:14:51Z</time>
      </trkpt>
      <trkpt lat="42.53322" lon="-0.15348">
        <ele>1053.4</ele>
        <time>2017-08-13T08:14:53Z</time>
      </trkpt>
      <trkpt lat="42.53324" lon="-0.15351">
        <ele>1053.6</ele>
        <time>2017-08-13T08:14:54Z</time>
      </trkpt>
      <trkpt lat="42.53327" lon="-0.15353">
        <ele>1053.9</ele>
        <time>2017-08-13T08:14:55Z</time>
      </trkpt>
      <trkpt lat="42.53329" lon="-0.15355">
        <ele>1054</ele>
        <time>2017-08-13T08:14:56Z</time>
      </trkpt>
      <trkpt lat="42.53332" lon="-0.15357">
        <ele>1054.2</ele>
        <time>2017-08-13T08:14:57Z</time>
      </trkpt>
      <trkpt lat="42.53335" lon="-0.15359">
        <ele>1054.3</ele>
        <time>2017-08-13T08:14:58Z</time>
      </trkpt>
      <trkpt lat="42.53338" lon="-0.15361">
        <ele>1054.5</ele>
        <time>2017-08-13T08:14:59Z</time>
      </trkpt>
      <trkpt lat="42.53342" lon="-0.15363">
        <ele>1054.6</ele>
        <time>2017-08-13T08:15:00Z</time>
      </trkpt>
      <trkpt lat="42.53345" lon="-0.15365">
        <ele>1054.7</ele>
        <time>2017-08-13T08:15:01Z</time>
      </trkpt>
      <trkpt lat="42.53349" lon="-0.15368">
        <ele>1054.8</ele>
        <time>2017-08-13T08:15:03Z</time>
      </trkpt>
      <trkpt lat="42.53351" lon="-0.1537">
        <ele>1054.9</ele>
        <time>2017-08-13T08:15:04Z</time>
      </trkpt>
      <trkpt lat="42.53354" lon="-0.15373">
        <ele>1055.1</ele>
        <time>2017-08-13T08:15:05Z</time>
      </trkpt>
      <trkpt lat="42.53357" lon="-0.15376">
        <ele>1055.3</ele>
        <time>2017-08-13T08:15:06Z</time>
      </trkpt>
      <trkpt lat="42.5336" lon="-0.1538">
        <ele>1055.6</ele>
        <time>2017-08-13T08:15:07Z</time>
      </trkpt>
      <trkpt lat="42.53362" lon="-0.15384">
        <ele>1055.9</ele>
        <time>2017-08-13T08:15:08Z</time>
      </trkpt>
      <trkpt lat="42.53364" lon="-0.15389">
        <ele>1056.2</ele>
        <time>2017-08-13T08:15:09Z</time>
      </trkpt>
      <trkpt lat="42.53365" lon="-0.15394">
        <ele>1056.3</ele>
        <time>2017-08-13T08:15:10Z</time>
      </trkpt>
      <trkpt lat="42.53366" lon="-0.154">
        <ele>1056.4</ele>
        <time>2017-08-13T08:15:11Z</time>
      </trkpt>
      <trkpt lat="42.53366" lon="-0.15406">
        <ele>1056.5</ele>
        <time>2017-08-13T08:15:12Z</time>
      </trkpt>
      <trkpt lat="42.53366" lon="-0.15413">
        <ele>1056.6</ele>
        <time>2017-08-13T08:15:13Z</time>
      </trkpt>
      <trkpt lat="42.53365" lon="-0.1542">
        <ele>1056.6</ele>
        <time>2017-08-13T08:15:14Z</time>
      </trkpt>
      <trkpt lat="42.53363" lon="-0.15428">
        <ele>1056.7</ele>
        <time>2017-08-13T08:15:15Z</time>
      </trkpt>
      <trkpt lat="42.53363" lon="-0.15434">
        <ele>1056.7</ele>
        <time>2017-08-13T08:15:16Z</time>
      </trkpt>
      <trkpt lat="42.53362" lon="-0.1544">
        <ele>1056.7</ele>
        <time>2017-08-13T08:15:17Z</time>
      </trkpt>
      <trkpt lat="42.53363" lon="-0.15446">
        <ele>1056.7</ele>
        <time>2017-08-13T08:15:18Z</time>
      </trkpt>
      <trkpt lat="42.53364" lon="-0.15452">
        <ele>1056.8</ele>
        <time>2017-08-13T08:15:19Z</time>
      </trkpt>
      <trkpt lat="42.53365" lon="-0.15457">
        <ele>1056.8</ele>
        <time>2017-08-13T08:15:20Z</time>
      </trkpt>
      <trkpt lat="42.53366" lon="-0.15463">
        <ele>1056.8</ele>
        <time>2017-08-13T08:15:21Z</time>
      </trkpt>
      <trkpt lat="42.53367" lon="-0.1547">
        <ele>1056.8</ele>
        <time>2017-08-13T08:15:22Z</time>
      </trkpt>
      <trkpt lat="42.53368" lon="-0.15476">
        <ele>1056.8</ele>
        <time>2017-08-13T08:15:23Z</time>
      </trkpt>
      <trkpt lat="42.53369" lon="-0.15482">
        <ele>1056.8</ele>
        <time>2017-08-13T08:15:24Z</time>
      </trkpt>
      <trkpt lat="42.5337" lon="-0.15489">
        <ele>1056.8</ele>
        <time>2017-08-13T08:15:25Z</time>
      </trkpt>
      <trkpt lat="42.53372" lon="-0.15495">
        <ele>1056.8</ele>
        <time>2017-08-13T08:15:26Z</time>
      </trkpt>
      <trkpt lat="42.53373" lon="-0.15501">
        <ele>1056.8</ele>
        <time>2017-08-13T08:15:27Z</time>
      </trkpt>
      <trkpt lat="42.53375" lon="-0.15507">
        <ele>1056.8</ele>
        <time>2017-08-13T08:15:28Z</time>
      </trkpt>
      <trkpt lat="42.53377" lon="-0.15513">
        <ele>1056.9</ele>
        <time>2017-08-13T08:15:29Z</time>
      </trkpt>
      <trkpt lat="42.53379" lon="-0.15519">
        <ele>1056.9</ele>
        <time>2017-08-13T08:15:30Z</time>
      </trkpt>
      <trkpt lat="42.53381" lon="-0.15525">
        <ele>1056.9</ele>
        <time>2017-08-13T08:15:31Z</time>
      </trkpt>
      <trkpt lat="42.53382" lon="-0.15531">
        <ele>1056.9</ele>
        <time>2017-08-13T08:15:32Z</time>
      </trkpt>
      <trkpt lat="42.53384" lon="-0.15537">
        <ele>1057</ele>
        <time>2017-08-13T08:15:33Z</time>
      </trkpt>
      <trkpt lat="42.53385" lon="-0.15542">
        <ele>1057</ele>
        <time>2017-08-13T08:15:34Z</time>
      </trkpt>
      <trkpt lat="42.53386" lon="-0.15549">
        <ele>1057.1</ele>
        <time>2017-08-13T08:15:35Z</time>
      </trkpt>
      <trkpt lat="42.53387" lon="-0.15555">
        <ele>1057.2</ele>
        <time>2017-08-13T08:15:36Z</time>
      </trkpt>
      <trkpt lat="42.53388" lon="-0.15562">
        <ele>1057.3</ele>
        <time>2017-08-13T08:15:37Z</time>
      </trkpt>
      <trkpt lat="42.53388" lon="-0.15569">
        <ele>1057.5</ele>
        <time>2017-08-13T08:15:38Z</time>
      </trkpt>
      <trkpt lat="42.53389" lon="-0.15576">
        <ele>1057.7</ele>
        <time>2017-08-13T08:15:39Z</time>
      </trkpt>
      <trkpt lat="42.53389" lon="-0.15583">
        <ele>1058</ele>
        <time>2017-08-13T08:15:40Z</time>
      </trkpt>
      <trkpt lat="42.53388" lon="-0.15591">
        <ele>1058.3</ele>
        <time>2017-08-13T08:15:41Z</time>
      </trkpt>
      <trkpt lat="42.53388" lon="-0.15598">
        <ele>1058.5</ele>
        <time>2017-08-13T08:15:42Z</time>
      </trkpt>
      <trkpt lat="42.53389" lon="-0.15606">
        <ele>1058.6</ele>
        <time>2017-08-13T08:15:43Z</time>
      </trkpt>
      <trkpt lat="42.5339" lon="-0.15613">
        <ele>1058.7</ele>
        <time>2017-08-13T08:15:44Z</time>
      </trkpt>
      <trkpt lat="42.53391" lon="-0.15621">
        <ele>1058.8</ele>
        <time>2017-08-13T08:15:45Z</time>
      </trkpt>
      <trkpt lat="42.53393" lon="-0.15628">
        <ele>1058.8</ele>
        <time>2017-08-13T08:15:46Z</time>
      </trkpt>
      <trkpt lat="42.53394" lon="-0.15636">
        <ele>1058.9</ele>
        <time>2017-08-13T08:15:47Z</time>
      </trkpt>
      <trkpt lat="42.53396" lon="-0.15643">
        <ele>1058.9</ele>
        <time>2017-08-13T08:15:48Z</time>
      </trkpt>
      <trkpt lat="42.53398" lon="-0.1565">
        <ele>1058.9</ele>
        <time>2017-08-13T08:15:49Z</time>
      </trkpt>
      <trkpt lat="42.534" lon="-0.15657">
        <ele>1059</ele>
        <time>2017-08-13T08:15:50Z</time>
      </trkpt>
      <trkpt lat="42.53402" lon="-0.15665">
        <ele>1059</ele>
        <time>2017-08-13T08:15:51Z</time>
      </trkpt>
      <trkpt lat="42.53403" lon="-0.15672">
        <ele>1059</ele>
        <time>2017-08-13T08:15:52Z</time>
      </trkpt>
      <trkpt lat="42.53404" lon="-0.15679">
        <ele>1059</ele>
        <time>2017-08-13T08:15:53Z</time>
      </trkpt>
      <trkpt lat="42.53405" lon="-0.15686">
        <ele>1059</ele>
        <time>2017-08-13T08:15:54Z</time>
      </trkpt>
      <trkpt lat="42.53404" lon="-0.15693">
        <ele>1059.1</ele>
        <time>2017-08-13T08:15:55Z</time>
      </trkpt>
      <trkpt lat="42.53404" lon="-0.15701">
        <ele>1059.1</ele>
        <time>2017-08-13T08:15:56Z</time>
      </trkpt>
      <trkpt lat="42.53404" lon="-0.15708">
        <ele>1059.1</ele>
        <time>2017-08-13T08:15:57Z</time>
      </trkpt>
      <trkpt lat="42.53401" lon="-0.15716">
        <ele>1059.1</ele>
        <time>2017-08-13T08:15:58Z</time>
      </trkpt>
      <trkpt lat="42.534" lon="-0.15723">
        <ele>1059.1</ele>
        <time>2017-08-13T08:15:59Z</time>
      </trkpt>
      <trkpt lat="42.53398" lon="-0.15729">
        <ele>1059.1</ele>
        <time>2017-08-13T08:16:00Z</time>
      </trkpt>
      <trkpt lat="42.53396" lon="-0.15736">
        <ele>1059.1</ele>
        <time>2017-08-13T08:16:01Z</time>
      </trkpt>
      <trkpt lat="42.53393" lon="-0.15743">
        <ele>1059.2</ele>
        <time>2017-08-13T08:16:02Z</time>
      </trkpt>
      <trkpt lat="42.53391" lon="-0.15749">
        <ele>1059.2</ele>
        <time>2017-08-13T08:16:03Z</time>
      </trkpt>
      <trkpt lat="42.53389" lon="-0.15755">
        <ele>1059.3</ele>
        <time>2017-08-13T08:16:04Z</time>
      </trkpt>
      <trkpt lat="42.53388" lon="-0.15761">
        <ele>1059.4</ele>
        <time>2017-08-13T08:16:05Z</time>
      </trkpt>
      <trkpt lat="42.53387" lon="-0.15767">
        <ele>1059.5</ele>
        <time>2017-08-13T08:16:06Z</time>
      </trkpt>
      <trkpt lat="42.53385" lon="-0.15772">
        <ele>1059.6</ele>
        <time>2017-08-13T08:16:07Z</time>
      </trkpt>
      <trkpt lat="42.53386" lon="-0.15776">
        <ele>1059.7</ele>
        <time>2017-08-13T08:16:08Z</time>
      </trkpt>
      <trkpt lat="42.53386" lon="-0.1578">
        <ele>1059.9</ele>
        <time>2017-08-13T08:16:09Z</time>
      </trkpt>
      <trkpt lat="42.53387" lon="-0.15787">
        <ele>1060.1</ele>
        <time>2017-08-13T08:16:11Z</time>
      </trkpt>
      <trkpt lat="42.53388" lon="-0.15794">
        <ele>1061.1</ele>
        <time>2017-08-13T08:16:13Z</time>
      </trkpt>
      <trkpt lat="42.53388" lon="-0.15801">
        <ele>1062.1</ele>
        <time>2017-08-13T08:16:15Z</time>
      </trkpt>
      <trkpt lat="42.53389" lon="-0.15808">
        <ele>1063.1</ele>
        <time>2017-08-13T08:16:17Z</time>
      </trkpt>
      <trkpt lat="42.53389" lon="-0.15815">
        <ele>1063.7</ele>
        <time>2017-08-13T08:16:19Z</time>
      </trkpt>
      <trkpt lat="42.53388" lon="-0.15822">
        <ele>1064.2</ele>
        <time>2017-08-13T08:16:21Z</time>
      </trkpt>
      <trkpt lat="42.53388" lon="-0.15828">
        <ele>1064.7</ele>
        <time>2017-08-13T08:16:23Z</time>
      </trkpt>
      <trkpt lat="42.53387" lon="-0.15835">
        <ele>1065.4</ele>
        <time>2017-08-13T08:16:25Z</time>
      </trkpt>
      <trkpt lat="42.53385" lon="-0.15842">
        <ele>1065.9</ele>
        <time>2017-08-13T08:16:27Z</time>
      </trkpt>
      <trkpt lat="42.53385" lon="-0.15846">
        <ele>1066.1</ele>
        <time>2017-08-13T08:16:28Z</time>
      </trkpt>
      <trkpt lat="42.53384" lon="-0.15849">
        <ele>1066.2</ele>
        <time>2017-08-13T08:16:29Z</time>
      </trkpt>
      <trkpt lat="42.53383" lon="-0.15853">
        <ele>1066.3</ele>
        <time>2017-08-13T08:16:30Z</time>
      </trkpt>
      <trkpt lat="42.53382" lon="-0.15857">
        <ele>1066.4</ele>
        <time>2017-08-13T08:16:31Z</time>
      </trkpt>
      <trkpt lat="42.53381" lon="-0.15861">
        <ele>1066.5</ele>
        <time>2017-08-13T08:16:32Z</time>
      </trkpt>
      <trkpt lat="42.53379" lon="-0.15864">
        <ele>1066.6</ele>
        <time>2017-08-13T08:16:33Z</time>
      </trkpt>
      <trkpt lat="42.53378" lon="-0.15868">
        <ele>1066.7</ele>
        <time>2017-08-13T08:16:34Z</time>
      </trkpt>
      <trkpt lat="42.53377" lon="-0.15872">
        <ele>1067</ele>
        <time>2017-08-13T08:16:35Z</time>
      </trkpt>
      <trkpt lat="42.53375" lon="-0.15875">
        <ele>1067.3</ele>
        <time>2017-08-13T08:16:36Z</time>
      </trkpt>
      <trkpt lat="42.53374" lon="-0.15879">
        <ele>1067.5</ele>
        <time>2017-08-13T08:16:37Z</time>
      </trkpt>
      <trkpt lat="42.53373" lon="-0.15883">
        <ele>1067.8</ele>
        <time>2017-08-13T08:16:38Z</time>
      </trkpt>
      <trkpt lat="42.53372" lon="-0.15887">
        <ele>1067.9</ele>
        <time>2017-08-13T08:16:39Z</time>
      </trkpt>
      <trkpt lat="42.53371" lon="-0.15891">
        <ele>1068</ele>
        <time>2017-08-13T08:16:40Z</time>
      </trkpt>
      <trkpt lat="42.5337" lon="-0.15895">
        <ele>1068.1</ele>
        <time>2017-08-13T08:16:41Z</time>
      </trkpt>
      <trkpt lat="42.53369" lon="-0.15898">
        <ele>1068.2</ele>
        <time>2017-08-13T08:16:42Z</time>
      </trkpt>
      <trkpt lat="42.53368" lon="-0.15903">
        <ele>1068.3</ele>
        <time>2017-08-13T08:16:43Z</time>
      </trkpt>
      <trkpt lat="42.53367" lon="-0.15907">
        <ele>1068.4</ele>
        <time>2017-08-13T08:16:44Z</time>
      </trkpt>
      <trkpt lat="42.53367" lon="-0.15913">
        <ele>1068.5</ele>
        <time>2017-08-13T08:16:45Z</time>
      </trkpt>
      <trkpt lat="42.53366" lon="-0.15919">
        <ele>1068.6</ele>
        <time>2017-08-13T08:16:46Z</time>
      </trkpt>
      <trkpt lat="42.53366" lon="-0.15924">
        <ele>1068.7</ele>
        <time>2017-08-13T08:16:47Z</time>
      </trkpt>
      <trkpt lat="42.53366" lon="-0.1593">
        <ele>1068.9</ele>
        <time>2017-08-13T08:16:48Z</time>
      </trkpt>
      <trkpt lat="42.53366" lon="-0.15935">
        <ele>1069.1</ele>
        <time>2017-08-13T08:16:49Z</time>
      </trkpt>
      <trkpt lat="42.53366" lon="-0.15941">
        <ele>1069.6</ele>
        <time>2017-08-13T08:16:50Z</time>
      </trkpt>
      <trkpt lat="42.53366" lon="-0.15946">
        <ele>1070.1</ele>
        <time>2017-08-13T08:16:51Z</time>
      </trkpt>
      <trkpt lat="42.53366" lon="-0.15951">
        <ele>1070.5</ele>
        <time>2017-08-13T08:16:52Z</time>
      </trkpt>
      <trkpt lat="42.53366" lon="-0.15956">
        <ele>1070.8</ele>
        <time>2017-08-13T08:16:53Z</time>
      </trkpt>
      <trkpt lat="42.53366" lon="-0.15962">
        <ele>1071</ele>
        <time>2017-08-13T08:16:54Z</time>
      </trkpt>
      <trkpt lat="42.53366" lon="-0.15967">
        <ele>1071.5</ele>
        <time>2017-08-13T08:16:55Z</time>
      </trkpt>
      <trkpt lat="42.53366" lon="-0.15971">
        <ele>1071.8</ele>
        <time>2017-08-13T08:16:56Z</time>
      </trkpt>
      <trkpt lat="42.53366" lon="-0.15976">
        <ele>1072.1</ele>
        <time>2017-08-13T08:16:57Z</time>
      </trkpt>
      <trkpt lat="42.53366" lon="-0.15981">
        <ele>1072.3</ele>
        <time>2017-08-13T08:16:58Z</time>
      </trkpt>
      <trkpt lat="42.53366" lon="-0.15986">
        <ele>1072.4</ele>
        <time>2017-08-13T08:16:59Z</time>
      </trkpt>
      <trkpt lat="42.53366" lon="-0.15991">
        <ele>1072.5</ele>
        <time>2017-08-13T08:17:00Z</time>
      </trkpt>
      <trkpt lat="42.53366" lon="-0.15996">
        <ele>1072.6</ele>
        <time>2017-08-13T08:17:01Z</time>
      </trkpt>
      <trkpt lat="42.53365" lon="-0.16001">
        <ele>1072.7</ele>
        <time>2017-08-13T08:17:02Z</time>
      </trkpt>
      <trkpt lat="42.53365" lon="-0.16006">
        <ele>1072.8</ele>
        <time>2017-08-13T08:17:03Z</time>
      </trkpt>
      <trkpt lat="42.53364" lon="-0.16011">
        <ele>1072.9</ele>
        <time>2017-08-13T08:17:04Z</time>
      </trkpt>
      <trkpt lat="42.53364" lon="-0.16016">
        <ele>1073</ele>
        <time>2017-08-13T08:17:05Z</time>
      </trkpt>
      <trkpt lat="42.53364" lon="-0.16021">
        <ele>1073</ele>
        <time>2017-08-13T08:17:06Z</time>
      </trkpt>
      <trkpt lat="42.53363" lon="-0.16026">
        <ele>1073.1</ele>
        <time>2017-08-13T08:17:07Z</time>
      </trkpt>
      <trkpt lat="42.53363" lon="-0.16031">
        <ele>1073.3</ele>
        <time>2017-08-13T08:17:08Z</time>
      </trkpt>
      <trkpt lat="42.53363" lon="-0.16036">
        <ele>1073.4</ele>
        <time>2017-08-13T08:17:09Z</time>
      </trkpt>
      <trkpt lat="42.53363" lon="-0.16041">
        <ele>1073.7</ele>
        <time>2017-08-13T08:17:10Z</time>
      </trkpt>
      <trkpt lat="42.53362" lon="-0.16046">
        <ele>1073.9</ele>
        <time>2017-08-13T08:17:11Z</time>
      </trkpt>
      <trkpt lat="42.53362" lon="-0.16052">
        <ele>1074.2</ele>
        <time>2017-08-13T08:17:12Z</time>
      </trkpt>
      <trkpt lat="42.53363" lon="-0.16057">
        <ele>1074.3</ele>
        <time>2017-08-13T08:17:13Z</time>
      </trkpt>
      <trkpt lat="42.53363" lon="-0.16062">
        <ele>1074.4</ele>
        <time>2017-08-13T08:17:14Z</time>
      </trkpt>
      <trkpt lat="42.53364" lon="-0.16067">
        <ele>1074.5</ele>
        <time>2017-08-13T08:17:15Z</time>
      </trkpt>
      <trkpt lat="42.53364" lon="-0.16072">
        <ele>1074.5</ele>
        <time>2017-08-13T08:17:16Z</time>
      </trkpt>
      <trkpt lat="42.53365" lon="-0.16077">
        <ele>1074.6</ele>
        <time>2017-08-13T08:17:17Z</time>
      </trkpt>
      <trkpt lat="42.53366" lon="-0.16082">
        <ele>1074.6</ele>
        <time>2017-08-13T08:17:18Z</time>
      </trkpt>
      <trkpt lat="42.53367" lon="-0.16087">
        <ele>1074.7</ele>
        <time>2017-08-13T08:17:19Z</time>
      </trkpt>
      <trkpt lat="42.53368" lon="-0.16092">
        <ele>1074.7</ele>
        <time>2017-08-13T08:17:20Z</time>
      </trkpt>
      <trkpt lat="42.53369" lon="-0.16097">
        <ele>1074.8</ele>
        <time>2017-08-13T08:17:21Z</time>
      </trkpt>
      <trkpt lat="42.5337" lon="-0.16102">
        <ele>1074.8</ele>
        <time>2017-08-13T08:17:22Z</time>
      </trkpt>
      <trkpt lat="42.5337" lon="-0.16107">
        <ele>1074.9</ele>
        <time>2017-08-13T08:17:23Z</time>
      </trkpt>
      <trkpt lat="42.53371" lon="-0.16112">
        <ele>1074.9</ele>
        <time>2017-08-13T08:17:24Z</time>
      </trkpt>
      <trkpt lat="42.53373" lon="-0.16117">
        <ele>1074.9</ele>
        <time>2017-08-13T08:17:25Z</time>
      </trkpt>
      <trkpt lat="42.53374" lon="-0.16122">
        <ele>1074.9</ele>
        <time>2017-08-13T08:17:26Z</time>
      </trkpt>
      <trkpt lat="42.53376" lon="-0.16126">
        <ele>1074.9</ele>
        <time>2017-08-13T08:17:27Z</time>
      </trkpt>
      <trkpt lat="42.53377" lon="-0.1613">
        <ele>1074.9</ele>
        <time>2017-08-13T08:17:28Z</time>
      </trkpt>
      <trkpt lat="42.53379" lon="-0.16133">
        <ele>1074.9</ele>
        <time>2017-08-13T08:17:29Z</time>
      </trkpt>
      <trkpt lat="42.53382" lon="-0.16139">
        <ele>1074.9</ele>
        <time>2017-08-13T08:17:31Z</time>
      </trkpt>
      <trkpt lat="42.53383" lon="-0.16143">
        <ele>1074.9</ele>
        <time>2017-08-13T08:17:32Z</time>
      </trkpt>
      <trkpt lat="42.53384" lon="-0.16146">
        <ele>1074.9</ele>
        <time>2017-08-13T08:17:33Z</time>
      </trkpt>
      <trkpt lat="42.53386" lon="-0.16151">
        <ele>1074.9</ele>
        <time>2017-08-13T08:17:34Z</time>
      </trkpt>
      <trkpt lat="42.53387" lon="-0.16155">
        <ele>1074.9</ele>
        <time>2017-08-13T08:17:35Z</time>
      </trkpt>
      <trkpt lat="42.53388" lon="-0.1616">
        <ele>1074.9</ele>
        <time>2017-08-13T08:17:36Z</time>
      </trkpt>
      <trkpt lat="42.5339" lon="-0.16164">
        <ele>1075</ele>
        <time>2017-08-13T08:17:37Z</time>
      </trkpt>
      <trkpt lat="42.53391" lon="-0.16169">
        <ele>1075</ele>
        <time>2017-08-13T08:17:38Z</time>
      </trkpt>
      <trkpt lat="42.53392" lon="-0.16174">
        <ele>1075</ele>
        <time>2017-08-13T08:17:39Z</time>
      </trkpt>
      <trkpt lat="42.53392" lon="-0.16179">
        <ele>1075</ele>
        <time>2017-08-13T08:17:40Z</time>
      </trkpt>
      <trkpt lat="42.53393" lon="-0.16184">
        <ele>1075</ele>
        <time>2017-08-13T08:17:41Z</time>
      </trkpt>
      <trkpt lat="42.53393" lon="-0.1619">
        <ele>1075</ele>
        <time>2017-08-13T08:17:42Z</time>
      </trkpt>
      <trkpt lat="42.53394" lon="-0.16195">
        <ele>1075</ele>
        <time>2017-08-13T08:17:43Z</time>
      </trkpt>
      <trkpt lat="42.53394" lon="-0.16201">
        <ele>1075</ele>
        <time>2017-08-13T08:17:44Z</time>
      </trkpt>
      <trkpt lat="42.53394" lon="-0.16208">
        <ele>1075</ele>
        <time>2017-08-13T08:17:45Z</time>
      </trkpt>
      <trkpt lat="42.53394" lon="-0.16215">
        <ele>1075</ele>
        <time>2017-08-13T08:17:46Z</time>
      </trkpt>
      <trkpt lat="42.53394" lon="-0.16221">
        <ele>1075</ele>
        <time>2017-08-13T08:17:47Z</time>
      </trkpt>
      <trkpt lat="42.53393" lon="-0.16228">
        <ele>1075</ele>
        <time>2017-08-13T08:17:48Z</time>
      </trkpt>
      <trkpt lat="42.53393" lon="-0.16236">
        <ele>1075</ele>
        <time>2017-08-13T08:17:49Z</time>
      </trkpt>
      <trkpt lat="42.53393" lon="-0.16243">
        <ele>1075</ele>
        <time>2017-08-13T08:17:50Z</time>
      </trkpt>
      <trkpt lat="42.53392" lon="-0.1625">
        <ele>1075</ele>
        <time>2017-08-13T08:17:51Z</time>
      </trkpt>
      <trkpt lat="42.53392" lon="-0.16257">
        <ele>1075</ele>
        <time>2017-08-13T08:17:52Z</time>
      </trkpt>
      <trkpt lat="42.53391" lon="-0.16264">
        <ele>1075</ele>
        <time>2017-08-13T08:17:53Z</time>
      </trkpt>
      <trkpt lat="42.5339" lon="-0.16271">
        <ele>1075</ele>
        <time>2017-08-13T08:17:54Z</time>
      </trkpt>
      <trkpt lat="42.5339" lon="-0.16279">
        <ele>1075</ele>
        <time>2017-08-13T08:17:55Z</time>
      </trkpt>
      <trkpt lat="42.53389" lon="-0.16287">
        <ele>1075</ele>
        <time>2017-08-13T08:17:56Z</time>
      </trkpt>
      <trkpt lat="42.53388" lon="-0.16295">
        <ele>1075.1</ele>
        <time>2017-08-13T08:17:57Z</time>
      </trkpt>
      <trkpt lat="42.53387" lon="-0.16303">
        <ele>1075.1</ele>
        <time>2017-08-13T08:17:58Z</time>
      </trkpt>
      <trkpt lat="42.53386" lon="-0.16311">
        <ele>1075.1</ele>
        <time>2017-08-13T08:17:59Z</time>
      </trkpt>
      <trkpt lat="42.53385" lon="-0.16318">
        <ele>1075.1</ele>
        <time>2017-08-13T08:18:00Z</time>
      </trkpt>
      <trkpt lat="42.53384" lon="-0.16325">
        <ele>1075.1</ele>
        <time>2017-08-13T08:18:01Z</time>
      </trkpt>
      <trkpt lat="42.53383" lon="-0.16333">
        <ele>1075.1</ele>
        <time>2017-08-13T08:18:02Z</time>
      </trkpt>
      <trkpt lat="42.53382" lon="-0.1634">
        <ele>1075.1</ele>
        <time>2017-08-13T08:18:03Z</time>
      </trkpt>
      <trkpt lat="42.53381" lon="-0.16348">
        <ele>1075.1</ele>
        <time>2017-08-13T08:18:04Z</time>
      </trkpt>
      <trkpt lat="42.53381" lon="-0.16356">
        <ele>1075.1</ele>
        <time>2017-08-13T08:18:05Z</time>
      </trkpt>
      <trkpt lat="42.53382" lon="-0.16363">
        <ele>1075.1</ele>
        <time>2017-08-13T08:18:06Z</time>
      </trkpt>
      <trkpt lat="42.53383" lon="-0.16371">
        <ele>1075.1</ele>
        <time>2017-08-13T08:18:07Z</time>
      </trkpt>
      <trkpt lat="42.53385" lon="-0.16378">
        <ele>1075.1</ele>
        <time>2017-08-13T08:18:08Z</time>
      </trkpt>
      <trkpt lat="42.53386" lon="-0.16385">
        <ele>1075.1</ele>
        <time>2017-08-13T08:18:09Z</time>
      </trkpt>
      <trkpt lat="42.53387" lon="-0.16392">
        <ele>1075.1</ele>
        <time>2017-08-13T08:18:10Z</time>
      </trkpt>
      <trkpt lat="42.53389" lon="-0.164">
        <ele>1075.1</ele>
        <time>2017-08-13T08:18:11Z</time>
      </trkpt>
      <trkpt lat="42.5339" lon="-0.16407">
        <ele>1075.2</ele>
        <time>2017-08-13T08:18:12Z</time>
      </trkpt>
      <trkpt lat="42.53391" lon="-0.16414">
        <ele>1075.2</ele>
        <time>2017-08-13T08:18:13Z</time>
      </trkpt>
      <trkpt lat="42.53391" lon="-0.16421">
        <ele>1075.2</ele>
        <time>2017-08-13T08:18:14Z</time>
      </trkpt>
      <trkpt lat="42.53392" lon="-0.16427">
        <ele>1075.2</ele>
        <time>2017-08-13T08:18:15Z</time>
      </trkpt>
      <trkpt lat="42.53393" lon="-0.16434">
        <ele>1075.2</ele>
        <time>2017-08-13T08:18:16Z</time>
      </trkpt>
      <trkpt lat="42.53393" lon="-0.1644">
        <ele>1075.2</ele>
        <time>2017-08-13T08:18:17Z</time>
      </trkpt>
      <trkpt lat="42.53393" lon="-0.16446">
        <ele>1075.2</ele>
        <time>2017-08-13T08:18:18Z</time>
      </trkpt>
      <trkpt lat="42.53394" lon="-0.16452">
        <ele>1075.3</ele>
        <time>2017-08-13T08:18:19Z</time>
      </trkpt>
      <trkpt lat="42.53394" lon="-0.16458">
        <ele>1075.3</ele>
        <time>2017-08-13T08:18:20Z</time>
      </trkpt>
      <trkpt lat="42.53394" lon="-0.16463">
        <ele>1075.3</ele>
        <time>2017-08-13T08:18:21Z</time>
      </trkpt>
      <trkpt lat="42.53393" lon="-0.16468">
        <ele>1075.3</ele>
        <time>2017-08-13T08:18:22Z</time>
      </trkpt>
      <trkpt lat="42.53393" lon="-0.16473">
        <ele>1075.4</ele>
        <time>2017-08-13T08:18:23Z</time>
      </trkpt>
      <trkpt lat="42.53393" lon="-0.16478">
        <ele>1075.4</ele>
        <time>2017-08-13T08:18:24Z</time>
      </trkpt>
      <trkpt lat="42.53392" lon="-0.16483">
        <ele>1075.4</ele>
        <time>2017-08-13T08:18:25Z</time>
      </trkpt>
      <trkpt lat="42.53392" lon="-0.16489">
        <ele>1075.5</ele>
        <time>2017-08-13T08:18:26Z</time>
      </trkpt>
      <trkpt lat="42.53392" lon="-0.16494">
        <ele>1075.5</ele>
        <time>2017-08-13T08:18:27Z</time>
      </trkpt>
      <trkpt lat="42.53392" lon="-0.16499">
        <ele>1075.6</ele>
        <time>2017-08-13T08:18:28Z</time>
      </trkpt>
      <trkpt lat="42.53393" lon="-0.16504">
        <ele>1075.6</ele>
        <time>2017-08-13T08:18:29Z</time>
      </trkpt>
      <trkpt lat="42.53394" lon="-0.16509">
        <ele>1075.7</ele>
        <time>2017-08-13T08:18:30Z</time>
      </trkpt>
      <trkpt lat="42.53394" lon="-0.16514">
        <ele>1075.8</ele>
        <time>2017-08-13T08:18:31Z</time>
      </trkpt>
      <trkpt lat="42.53395" lon="-0.16519">
        <ele>1075.9</ele>
        <time>2017-08-13T08:18:32Z</time>
      </trkpt>
      <trkpt lat="42.53396" lon="-0.16524">
        <ele>1075.9</ele>
        <time>2017-08-13T08:18:33Z</time>
      </trkpt>
      <trkpt lat="42.53397" lon="-0.16528">
        <ele>1076.1</ele>
        <time>2017-08-13T08:18:34Z</time>
      </trkpt>
      <trkpt lat="42.53399" lon="-0.16533">
        <ele>1076.3</ele>
        <time>2017-08-13T08:18:35Z</time>
      </trkpt>
      <trkpt lat="42.534" lon="-0.16537">
        <ele>1076.6</ele>
        <time>2017-08-13T08:18:36Z</time>
      </trkpt>
      <trkpt lat="42.53401" lon="-0.16542">
        <ele>1076.8</ele>
        <time>2017-08-13T08:18:37Z</time>
      </trkpt>
      <trkpt lat="42.53402" lon="-0.16547">
        <ele>1076.9</ele>
        <time>2017-08-13T08:18:38Z</time>
      </trkpt>
      <trkpt lat="42.53403" lon="-0.16551">
        <ele>1076.9</ele>
        <time>2017-08-13T08:18:39Z</time>
      </trkpt>
      <trkpt lat="42.53404" lon="-0.16556">
        <ele>1077</ele>
        <time>2017-08-13T08:18:40Z</time>
      </trkpt>
      <trkpt lat="42.53405" lon="-0.16561">
        <ele>1077.1</ele>
        <time>2017-08-13T08:18:41Z</time>
      </trkpt>
      <trkpt lat="42.53405" lon="-0.16566">
        <ele>1077.1</ele>
        <time>2017-08-13T08:18:42Z</time>
      </trkpt>
      <trkpt lat="42.53406" lon="-0.16572">
        <ele>1077.2</ele>
        <time>2017-08-13T08:18:43Z</time>
      </trkpt>
      <trkpt lat="42.53405" lon="-0.16577">
        <ele>1077.2</ele>
        <time>2017-08-13T08:18:44Z</time>
      </trkpt>
      <trkpt lat="42.53405" lon="-0.16583">
        <ele>1077.3</ele>
        <time>2017-08-13T08:18:45Z</time>
      </trkpt>
      <trkpt lat="42.53404" lon="-0.16589">
        <ele>1077.3</ele>
        <time>2017-08-13T08:18:46Z</time>
      </trkpt>
      <trkpt lat="42.53403" lon="-0.16596">
        <ele>1077.4</ele>
        <time>2017-08-13T08:18:47Z</time>
      </trkpt>
      <trkpt lat="42.53402" lon="-0.16602">
        <ele>1077.4</ele>
        <time>2017-08-13T08:18:48Z</time>
      </trkpt>
      <trkpt lat="42.534" lon="-0.16607">
        <ele>1077.5</ele>
        <time>2017-08-13T08:18:49Z</time>
      </trkpt>
      <trkpt lat="42.53398" lon="-0.16613">
        <ele>1077.5</ele>
        <time>2017-08-13T08:18:50Z</time>
      </trkpt>
      <trkpt lat="42.53396" lon="-0.16618">
        <ele>1077.6</ele>
        <time>2017-08-13T08:18:51Z</time>
      </trkpt>
      <trkpt lat="42.53394" lon="-0.16623">
        <ele>1077.7</ele>
        <time>2017-08-13T08:18:52Z</time>
      </trkpt>
      <trkpt lat="42.53392" lon="-0.16627">
        <ele>1077.8</ele>
        <time>2017-08-13T08:18:53Z</time>
      </trkpt>
      <trkpt lat="42.5339" lon="-0.16632">
        <ele>1077.9</ele>
        <time>2017-08-13T08:18:54Z</time>
      </trkpt>
      <trkpt lat="42.53388" lon="-0.16637">
        <ele>1078</ele>
        <time>2017-08-13T08:18:55Z</time>
      </trkpt>
      <trkpt lat="42.53386" lon="-0.16641">
        <ele>1078</ele>
        <time>2017-08-13T08:18:56Z</time>
      </trkpt>
      <trkpt lat="42.53383" lon="-0.16646">
        <ele>1078</ele>
        <time>2017-08-13T08:18:57Z</time>
      </trkpt>
      <trkpt lat="42.53381" lon="-0.16651">
        <ele>1078</ele>
        <time>2017-08-13T08:18:58Z</time>
      </trkpt>
      <trkpt lat="42.53379" lon="-0.16655">
        <ele>1078</ele>
        <time>2017-08-13T08:18:59Z</time>
      </trkpt>
      <trkpt lat="42.53377" lon="-0.1666">
        <ele>1078</ele>
        <time>2017-08-13T08:19:00Z</time>
      </trkpt>
      <trkpt lat="42.53376" lon="-0.16665">
        <ele>1078</ele>
        <time>2017-08-13T08:19:01Z</time>
      </trkpt>
      <trkpt lat="42.53376" lon="-0.16671">
        <ele>1078</ele>
        <time>2017-08-13T08:19:02Z</time>
      </trkpt>
      <trkpt lat="42.53376" lon="-0.16677">
        <ele>1078</ele>
        <time>2017-08-13T08:19:03Z</time>
      </trkpt>
      <trkpt lat="42.53376" lon="-0.16682">
        <ele>1078</ele>
        <time>2017-08-13T08:19:04Z</time>
      </trkpt>
      <trkpt lat="42.53377" lon="-0.16688">
        <ele>1078</ele>
        <time>2017-08-13T08:19:05Z</time>
      </trkpt>
      <trkpt lat="42.53378" lon="-0.16693">
        <ele>1078</ele>
        <time>2017-08-13T08:19:06Z</time>
      </trkpt>
      <trkpt lat="42.53379" lon="-0.16698">
        <ele>1078</ele>
        <time>2017-08-13T08:19:07Z</time>
      </trkpt>
      <trkpt lat="42.5338" lon="-0.16702">
        <ele>1078</ele>
        <time>2017-08-13T08:19:08Z</time>
      </trkpt>
      <trkpt lat="42.53381" lon="-0.16707">
        <ele>1078</ele>
        <time>2017-08-13T08:19:10Z</time>
      </trkpt>
      <trkpt lat="42.53382" lon="-0.16711">
        <ele>1078</ele>
        <time>2017-08-13T08:19:12Z</time>
      </trkpt>
      <trkpt lat="42.53384" lon="-0.16715">
        <ele>1078</ele>
        <time>2017-08-13T08:19:15Z</time>
      </trkpt>
      <trkpt lat="42.53386" lon="-0.16718">
        <ele>1078</ele>
        <time>2017-08-13T08:19:18Z</time>
      </trkpt>
      <trkpt lat="42.53381" lon="-0.16716">
        <ele>1078</ele>
        <time>2017-08-13T08:19:21Z</time>
      </trkpt>
      <trkpt lat="42.5338" lon="-0.16711">
        <ele>1078</ele>
        <time>2017-08-13T08:19:22Z</time>
      </trkpt>
      <trkpt lat="42.5338" lon="-0.16706">
        <ele>1078</ele>
        <time>2017-08-13T08:19:23Z</time>
      </trkpt>
      <trkpt lat="42.5338" lon="-0.16699">
        <ele>1078</ele>
        <time>2017-08-13T08:19:24Z</time>
      </trkpt>
      <trkpt lat="42.5338" lon="-0.16693">
        <ele>1078</ele>
        <time>2017-08-13T08:19:25Z</time>
      </trkpt>
      <trkpt lat="42.53379" lon="-0.16688">
        <ele>1078</ele>
        <time>2017-08-13T08:19:26Z</time>
      </trkpt>
      <trkpt lat="42.53377" lon="-0.16682">
        <ele>1078</ele>
        <time>2017-08-13T08:19:27Z</time>
      </trkpt>
      <trkpt lat="42.53374" lon="-0.16677">
        <ele>1079.5</ele>
        <time>2017-08-13T08:19:28Z</time>
      </trkpt>
      <trkpt lat="42.53371" lon="-0.16671">
        <ele>1080.6</ele>
        <time>2017-08-13T08:19:29Z</time>
      </trkpt>
      <trkpt lat="42.53368" lon="-0.16668">
        <ele>1081.7</ele>
        <time>2017-08-13T08:19:30Z</time>
      </trkpt>
      <trkpt lat="42.53364" lon="-0.16665">
        <ele>1082.7</ele>
        <time>2017-08-13T08:19:32Z</time>
      </trkpt>
      <trkpt lat="42.53362" lon="-0.16661">
        <ele>1083.2</ele>
        <time>2017-08-13T08:19:34Z</time>
      </trkpt>
      <trkpt lat="42.53361" lon="-0.16657">
        <ele>1083.6</ele>
        <time>2017-08-13T08:19:36Z</time>
      </trkpt>
      <trkpt lat="42.53361" lon="-0.16652">
        <ele>1084.5</ele>
        <time>2017-08-13T08:19:38Z</time>
      </trkpt>
      <trkpt lat="42.53362" lon="-0.16647">
        <ele>1085.2</ele>
        <time>2017-08-13T08:19:40Z</time>
      </trkpt>
      <trkpt lat="42.53362" lon="-0.16642">
        <ele>1085.5</ele>
        <time>2017-08-13T08:19:42Z</time>
      </trkpt>
      <trkpt lat="42.53362" lon="-0.16637">
        <ele>1085.8</ele>
        <time>2017-08-13T08:19:44Z</time>
      </trkpt>
      <trkpt lat="42.5336" lon="-0.16631">
        <ele>1086</ele>
        <time>2017-08-13T08:19:46Z</time>
      </trkpt>
      <trkpt lat="42.53358" lon="-0.16626">
        <ele>1086.1</ele>
        <time>2017-08-13T08:19:48Z</time>
      </trkpt>
      <trkpt lat="42.53357" lon="-0.16621">
        <ele>1086.1</ele>
        <time>2017-08-13T08:19:50Z</time>
      </trkpt>
      <trkpt lat="42.53355" lon="-0.16616">
        <ele>1086.2</ele>
        <time>2017-08-13T08:19:52Z</time>
      </trkpt>
      <trkpt lat="42.53354" lon="-0.1661">
        <ele>1086.2</ele>
        <time>2017-08-13T08:19:54Z</time>
      </trkpt>
      <trkpt lat="42.53353" lon="-0.16605">
        <ele>1086.1</ele>
        <time>2017-08-13T08:19:56Z</time>
      </trkpt>
      <trkpt lat="42.53352" lon="-0.16599">
        <ele>1085.9</ele>
        <time>2017-08-13T08:19:58Z</time>
      </trkpt>
      <trkpt lat="42.53351" lon="-0.16594">
        <ele>1085.7</ele>
        <time>2017-08-13T08:20:00Z</time>
      </trkpt>
      <trkpt lat="42.53351" lon="-0.16588">
        <ele>1085.5</ele>
        <time>2017-08-13T08:20:02Z</time>
      </trkpt>
      <trkpt lat="42.53351" lon="-0.16583">
        <ele>1085.3</ele>
        <time>2017-08-13T08:20:04Z</time>
      </trkpt>
      <trkpt lat="42.5335" lon="-0.16578">
        <ele>1085.1</ele>
        <time>2017-08-13T08:20:06Z</time>
      </trkpt>
      <trkpt lat="42.53349" lon="-0.16572">
        <ele>1085</ele>
        <time>2017-08-13T08:20:08Z</time>
      </trkpt>
      <trkpt lat="42.53348" lon="-0.16568">
        <ele>1085.1</ele>
        <time>2017-08-13T08:20:10Z</time>
      </trkpt>
      <trkpt lat="42.53348" lon="-0.16564">
        <ele>1085.2</ele>
        <time>2017-08-13T08:20:12Z</time>
      </trkpt>
      <trkpt lat="42.53347" lon="-0.16559">
        <ele>1085.2</ele>
        <time>2017-08-13T08:20:14Z</time>
      </trkpt>
      <trkpt lat="42.53345" lon="-0.16555">
        <ele>1085.5</ele>
        <time>2017-08-13T08:20:16Z</time>
      </trkpt>
      <trkpt lat="42.53343" lon="-0.16551">
        <ele>1085.9</ele>
        <time>2017-08-13T08:20:18Z</time>
      </trkpt>
      <trkpt lat="42.53342" lon="-0.16547">
        <ele>1086.3</ele>
        <time>2017-08-13T08:20:20Z</time>
      </trkpt>
      <trkpt lat="42.53341" lon="-0.16542">
        <ele>1086.7</ele>
        <time>2017-08-13T08:20:22Z</time>
      </trkpt>
      <trkpt lat="42.53339" lon="-0.16537">
        <ele>1087.1</ele>
        <time>2017-08-13T08:20:24Z</time>
      </trkpt>
      <trkpt lat="42.53336" lon="-0.16534">
        <ele>1087.7</ele>
        <time>2017-08-13T08:20:26Z</time>
      </trkpt>
      <trkpt lat="42.53335" lon="-0.1653">
        <ele>1088.4</ele>
        <time>2017-08-13T08:20:28Z</time>
      </trkpt>
      <trkpt lat="42.53334" lon="-0.16526">
        <ele>1089.1</ele>
        <time>2017-08-13T08:20:30Z</time>
      </trkpt>
      <trkpt lat="42.53335" lon="-0.16521">
        <ele>1089.6</ele>
        <time>2017-08-13T08:20:32Z</time>
      </trkpt>
      <trkpt lat="42.53335" lon="-0.16516">
        <ele>1089.9</ele>
        <time>2017-08-13T08:20:34Z</time>
      </trkpt>
      <trkpt lat="42.53335" lon="-0.16511">
        <ele>1090.2</ele>
        <time>2017-08-13T08:20:36Z</time>
      </trkpt>
      <trkpt lat="42.53335" lon="-0.16506">
        <ele>1090.6</ele>
        <time>2017-08-13T08:20:38Z</time>
      </trkpt>
      <trkpt lat="42.53333" lon="-0.16501">
        <ele>1091.5</ele>
        <time>2017-08-13T08:20:40Z</time>
      </trkpt>
      <trkpt lat="42.5333" lon="-0.16496">
        <ele>1091.9</ele>
        <time>2017-08-13T08:20:42Z</time>
      </trkpt>
      <trkpt lat="42.53328" lon="-0.16492">
        <ele>1092.2</ele>
        <time>2017-08-13T08:20:44Z</time>
      </trkpt>
      <trkpt lat="42.53328" lon="-0.16487">
        <ele>1092.3</ele>
        <time>2017-08-13T08:20:46Z</time>
      </trkpt>
      <trkpt lat="42.53328" lon="-0.16483">
        <ele>1092.5</ele>
        <time>2017-08-13T08:20:48Z</time>
      </trkpt>
      <trkpt lat="42.53328" lon="-0.16478">
        <ele>1092.6</ele>
        <time>2017-08-13T08:20:50Z</time>
      </trkpt>
      <trkpt lat="42.53328" lon="-0.16474">
        <ele>1092.8</ele>
        <time>2017-08-13T08:20:52Z</time>
      </trkpt>
      <trkpt lat="42.53327" lon="-0.1647">
        <ele>1092.9</ele>
        <time>2017-08-13T08:20:54Z</time>
      </trkpt>
      <trkpt lat="42.53326" lon="-0.16465">
        <ele>1092.9</ele>
        <time>2017-08-13T08:20:56Z</time>
      </trkpt>
      <trkpt lat="42.53325" lon="-0.1646">
        <ele>1092.9</ele>
        <time>2017-08-13T08:20:58Z</time>
      </trkpt>
      <trkpt lat="42.53322" lon="-0.16456">
        <ele>1093</ele>
        <time>2017-08-13T08:21:00Z</time>
      </trkpt>
      <trkpt lat="42.53318" lon="-0.16452">
        <ele>1093.1</ele>
        <time>2017-08-13T08:21:02Z</time>
      </trkpt>
      <trkpt lat="42.53315" lon="-0.16448">
        <ele>1093.8</ele>
        <time>2017-08-13T08:21:04Z</time>
      </trkpt>
      <trkpt lat="42.53313" lon="-0.16443">
        <ele>1094.3</ele>
        <time>2017-08-13T08:21:06Z</time>
      </trkpt>
      <trkpt lat="42.53312" lon="-0.16437">
        <ele>1094.9</ele>
        <time>2017-08-13T08:21:08Z</time>
      </trkpt>
      <trkpt lat="42.53313" lon="-0.16432">
        <ele>1095.6</ele>
        <time>2017-08-13T08:21:10Z</time>
      </trkpt>
      <trkpt lat="42.53313" lon="-0.16427">
        <ele>1096.8</ele>
        <time>2017-08-13T08:21:12Z</time>
      </trkpt>
      <trkpt lat="42.53313" lon="-0.16421">
        <ele>1097.3</ele>
        <time>2017-08-13T08:21:14Z</time>
      </trkpt>
      <trkpt lat="42.53313" lon="-0.16417">
        <ele>1097.6</ele>
        <time>2017-08-13T08:21:16Z</time>
      </trkpt>
      <trkpt lat="42.53312" lon="-0.16413">
        <ele>1097.9</ele>
        <time>2017-08-13T08:21:18Z</time>
      </trkpt>
      <trkpt lat="42.53311" lon="-0.16408">
        <ele>1098.7</ele>
        <time>2017-08-13T08:21:20Z</time>
      </trkpt>
      <trkpt lat="42.5331" lon="-0.16404">
        <ele>1099.5</ele>
        <time>2017-08-13T08:21:22Z</time>
      </trkpt>
      <trkpt lat="42.5331" lon="-0.16399">
        <ele>1099.9</ele>
        <time>2017-08-13T08:21:25Z</time>
      </trkpt>
      <trkpt lat="42.5331" lon="-0.16394">
        <ele>1100.3</ele>
        <time>2017-08-13T08:21:27Z</time>
      </trkpt>
      <trkpt lat="42.53309" lon="-0.1639">
        <ele>1100.7</ele>
        <time>2017-08-13T08:21:29Z</time>
      </trkpt>
      <trkpt lat="42.53307" lon="-0.16386">
        <ele>1101.1</ele>
        <time>2017-08-13T08:21:31Z</time>
      </trkpt>
      <trkpt lat="42.53305" lon="-0.16382">
        <ele>1101.7</ele>
        <time>2017-08-13T08:21:33Z</time>
      </trkpt>
      <trkpt lat="42.53303" lon="-0.16377">
        <ele>1102.6</ele>
        <time>2017-08-13T08:21:35Z</time>
      </trkpt>
      <trkpt lat="42.53302" lon="-0.16372">
        <ele>1103</ele>
        <time>2017-08-13T08:21:37Z</time>
      </trkpt>
      <trkpt lat="42.53301" lon="-0.16368">
        <ele>1103.2</ele>
        <time>2017-08-13T08:21:39Z</time>
      </trkpt>
      <trkpt lat="42.533" lon="-0.16363">
        <ele>1103.5</ele>
        <time>2017-08-13T08:21:41Z</time>
      </trkpt>
      <trkpt lat="42.53298" lon="-0.16358">
        <ele>1103.7</ele>
        <time>2017-08-13T08:21:43Z</time>
      </trkpt>
      <trkpt lat="42.53296" lon="-0.16352">
        <ele>1103.7</ele>
        <time>2017-08-13T08:21:45Z</time>
      </trkpt>
      <trkpt lat="42.53295" lon="-0.16346">
        <ele>1103.5</ele>
        <time>2017-08-13T08:21:47Z</time>
      </trkpt>
      <trkpt lat="42.53296" lon="-0.16341">
        <ele>1103.1</ele>
        <time>2017-08-13T08:21:49Z</time>
      </trkpt>
      <trkpt lat="42.53295" lon="-0.16335">
        <ele>1102.5</ele>
        <time>2017-08-13T08:21:51Z</time>
      </trkpt>
      <trkpt lat="42.53294" lon="-0.16329">
        <ele>1101.7</ele>
        <time>2017-08-13T08:21:53Z</time>
      </trkpt>
      <trkpt lat="42.53294" lon="-0.16323">
        <ele>1101.1</ele>
        <time>2017-08-13T08:21:55Z</time>
      </trkpt>
      <trkpt lat="42.53294" lon="-0.16318">
        <ele>1100.8</ele>
        <time>2017-08-13T08:21:56Z</time>
      </trkpt>
      <trkpt lat="42.53295" lon="-0.16314">
        <ele>1100.6</ele>
        <time>2017-08-13T08:21:57Z</time>
      </trkpt>
      <trkpt lat="42.53296" lon="-0.16309">
        <ele>1100.3</ele>
        <time>2017-08-13T08:21:58Z</time>
      </trkpt>
      <trkpt lat="42.53297" lon="-0.16304">
        <ele>1100</ele>
        <time>2017-08-13T08:21:59Z</time>
      </trkpt>
      <trkpt lat="42.53298" lon="-0.163">
        <ele>1099.8</ele>
        <time>2017-08-13T08:22:00Z</time>
      </trkpt>
      <trkpt lat="42.533" lon="-0.16295">
        <ele>1099.6</ele>
        <time>2017-08-13T08:22:01Z</time>
      </trkpt>
      <trkpt lat="42.53301" lon="-0.16292">
        <ele>1099.5</ele>
        <time>2017-08-13T08:22:02Z</time>
      </trkpt>
      <trkpt lat="42.53302" lon="-0.16288">
        <ele>1099.4</ele>
        <time>2017-08-13T08:22:03Z</time>
      </trkpt>
      <trkpt lat="42.53302" lon="-0.16281">
        <ele>1099.2</ele>
        <time>2017-08-13T08:22:05Z</time>
      </trkpt>
      <trkpt lat="42.53302" lon="-0.16275">
        <ele>1099.1</ele>
        <time>2017-08-13T08:22:07Z</time>
      </trkpt>
      <trkpt lat="42.53299" lon="-0.16271">
        <ele>1099.1</ele>
        <time>2017-08-13T08:22:09Z</time>
      </trkpt>
      <trkpt lat="42.53297" lon="-0.16267">
        <ele>1099.2</ele>
        <time>2017-08-13T08:22:11Z</time>
      </trkpt>
      <trkpt lat="42.53295" lon="-0.16263">
        <ele>1099.6</ele>
        <time>2017-08-13T08:22:13Z</time>
      </trkpt>
      <trkpt lat="42.53292" lon="-0.16258">
        <ele>1100.3</ele>
        <time>2017-08-13T08:22:15Z</time>
      </trkpt>
      <trkpt lat="42.5329" lon="-0.16252">
        <ele>1101</ele>
        <time>2017-08-13T08:22:17Z</time>
      </trkpt>
      <trkpt lat="42.53289" lon="-0.16246">
        <ele>1101.5</ele>
        <time>2017-08-13T08:22:19Z</time>
      </trkpt>
      <trkpt lat="42.53288" lon="-0.16241">
        <ele>1101.9</ele>
        <time>2017-08-13T08:22:21Z</time>
      </trkpt>
      <trkpt lat="42.53286" lon="-0.16237">
        <ele>1102.3</ele>
        <time>2017-08-13T08:22:23Z</time>
      </trkpt>
      <trkpt lat="42.53283" lon="-0.16233">
        <ele>1102.8</ele>
        <time>2017-08-13T08:22:25Z</time>
      </trkpt>
      <trkpt lat="42.53282" lon="-0.16229">
        <ele>1103.3</ele>
        <time>2017-08-13T08:22:27Z</time>
      </trkpt>
      <trkpt lat="42.53282" lon="-0.16225">
        <ele>1103.9</ele>
        <time>2017-08-13T08:22:29Z</time>
      </trkpt>
      <trkpt lat="42.53281" lon="-0.1622">
        <ele>1104.9</ele>
        <time>2017-08-13T08:22:31Z</time>
      </trkpt>
      <trkpt lat="42.53279" lon="-0.16217">
        <ele>1105.7</ele>
        <time>2017-08-13T08:22:32Z</time>
      </trkpt>
      <trkpt lat="42.53276" lon="-0.16212">
        <ele>1106.5</ele>
        <time>2017-08-13T08:22:34Z</time>
      </trkpt>
      <trkpt lat="42.53273" lon="-0.16207">
        <ele>1107</ele>
        <time>2017-08-13T08:22:36Z</time>
      </trkpt>
      <trkpt lat="42.53271" lon="-0.16202">
        <ele>1107.5</ele>
        <time>2017-08-13T08:22:38Z</time>
      </trkpt>
      <trkpt lat="42.5327" lon="-0.16199">
        <ele>1107.8</ele>
        <time>2017-08-13T08:22:39Z</time>
      </trkpt>
      <trkpt lat="42.53269" lon="-0.16193">
        <ele>1108.3</ele>
        <time>2017-08-13T08:22:41Z</time>
      </trkpt>
      <trkpt lat="42.53269" lon="-0.16186">
        <ele>1109</ele>
        <time>2017-08-13T08:22:43Z</time>
      </trkpt>
      <trkpt lat="42.53267" lon="-0.1618">
        <ele>1109.7</ele>
        <time>2017-08-13T08:22:45Z</time>
      </trkpt>
      <trkpt lat="42.53266" lon="-0.16176">
        <ele>1110.4</ele>
        <time>2017-08-13T08:22:47Z</time>
      </trkpt>
      <trkpt lat="42.53265" lon="-0.16172">
        <ele>1110.6</ele>
        <time>2017-08-13T08:22:49Z</time>
      </trkpt>
      <trkpt lat="42.53263" lon="-0.16167">
        <ele>1110.9</ele>
        <time>2017-08-13T08:22:51Z</time>
      </trkpt>
      <trkpt lat="42.53264" lon="-0.16163">
        <ele>1111.5</ele>
        <time>2017-08-13T08:22:53Z</time>
      </trkpt>
      <trkpt lat="42.53265" lon="-0.16157">
        <ele>1112.2</ele>
        <time>2017-08-13T08:22:56Z</time>
      </trkpt>
      <trkpt lat="42.53264" lon="-0.16152">
        <ele>1112.6</ele>
        <time>2017-08-13T08:22:58Z</time>
      </trkpt>
      <trkpt lat="42.53262" lon="-0.16147">
        <ele>1113.1</ele>
        <time>2017-08-13T08:23:00Z</time>
      </trkpt>
      <trkpt lat="42.53259" lon="-0.16143">
        <ele>1113.7</ele>
        <time>2017-08-13T08:23:02Z</time>
      </trkpt>
      <trkpt lat="42.53255" lon="-0.16139">
        <ele>1114.7</ele>
        <time>2017-08-13T08:23:04Z</time>
      </trkpt>
      <trkpt lat="42.53252" lon="-0.16136">
        <ele>1115.2</ele>
        <time>2017-08-13T08:23:06Z</time>
      </trkpt>
      <trkpt lat="42.53251" lon="-0.16131">
        <ele>1115.6</ele>
        <time>2017-08-13T08:23:09Z</time>
      </trkpt>
      <trkpt lat="42.53249" lon="-0.16126">
        <ele>1116.3</ele>
        <time>2017-08-13T08:23:11Z</time>
      </trkpt>
      <trkpt lat="42.53247" lon="-0.16123">
        <ele>1117</ele>
        <time>2017-08-13T08:23:13Z</time>
      </trkpt>
      <trkpt lat="42.53244" lon="-0.1612">
        <ele>1117.6</ele>
        <time>2017-08-13T08:23:15Z</time>
      </trkpt>
      <trkpt lat="42.53242" lon="-0.16115">
        <ele>1118</ele>
        <time>2017-08-13T08:23:17Z</time>
      </trkpt>
      <trkpt lat="42.53239" lon="-0.16111">
        <ele>1118.4</ele>
        <time>2017-08-13T08:23:19Z</time>
      </trkpt>
      <trkpt lat="42.53236" lon="-0.16108">
        <ele>1118.7</ele>
        <time>2017-08-13T08:23:21Z</time>
      </trkpt>
      <trkpt lat="42.53234" lon="-0.16103">
        <ele>1119.1</ele>
        <time>2017-08-13T08:23:23Z</time>
      </trkpt>
      <trkpt lat="42.53232" lon="-0.16098">
        <ele>1119.6</ele>
        <time>2017-08-13T08:23:25Z</time>
      </trkpt>
      <trkpt lat="42.53231" lon="-0.16092">
        <ele>1119.6</ele>
        <time>2017-08-13T08:23:27Z</time>
      </trkpt>
      <trkpt lat="42.53231" lon="-0.16087">
        <ele>1119.6</ele>
        <time>2017-08-13T08:23:29Z</time>
      </trkpt>
      <trkpt lat="42.53232" lon="-0.16081">
        <ele>1119.5</ele>
        <time>2017-08-13T08:23:31Z</time>
      </trkpt>
      <trkpt lat="42.53232" lon="-0.16076">
        <ele>1119.4</ele>
        <time>2017-08-13T08:23:33Z</time>
      </trkpt>
      <trkpt lat="42.53234" lon="-0.16073">
        <ele>1119.3</ele>
        <time>2017-08-13T08:23:35Z</time>
      </trkpt>
      <trkpt lat="42.53236" lon="-0.16068">
        <ele>1119.4</ele>
        <time>2017-08-13T08:23:37Z</time>
      </trkpt>
      <trkpt lat="42.53235" lon="-0.16063">
        <ele>1119.6</ele>
        <time>2017-08-13T08:23:39Z</time>
      </trkpt>
      <trkpt lat="42.53233" lon="-0.16058">
        <ele>1119.8</ele>
        <time>2017-08-13T08:23:41Z</time>
      </trkpt>
      <trkpt lat="42.5323" lon="-0.16053">
        <ele>1120</ele>
        <time>2017-08-13T08:23:43Z</time>
      </trkpt>
      <trkpt lat="42.53226" lon="-0.16047">
        <ele>1120.4</ele>
        <time>2017-08-13T08:23:45Z</time>
      </trkpt>
      <trkpt lat="42.53224" lon="-0.16042">
        <ele>1120.8</ele>
        <time>2017-08-13T08:23:47Z</time>
      </trkpt>
      <trkpt lat="42.53224" lon="-0.16037">
        <ele>1121</ele>
        <time>2017-08-13T08:23:49Z</time>
      </trkpt>
      <trkpt lat="42.53224" lon="-0.16031">
        <ele>1121.1</ele>
        <time>2017-08-13T08:23:51Z</time>
      </trkpt>
      <trkpt lat="42.53223" lon="-0.16027">
        <ele>1121.2</ele>
        <time>2017-08-13T08:23:53Z</time>
      </trkpt>
      <trkpt lat="42.53223" lon="-0.16022">
        <ele>1121.3</ele>
        <time>2017-08-13T08:23:55Z</time>
      </trkpt>
      <trkpt lat="42.53224" lon="-0.16017">
        <ele>1121.7</ele>
        <time>2017-08-13T08:23:57Z</time>
      </trkpt>
      <trkpt lat="42.53224" lon="-0.16012">
        <ele>1122.1</ele>
        <time>2017-08-13T08:23:59Z</time>
      </trkpt>
      <trkpt lat="42.53225" lon="-0.16007">
        <ele>1122.3</ele>
        <time>2017-08-13T08:24:01Z</time>
      </trkpt>
      <trkpt lat="42.53225" lon="-0.16">
        <ele>1122.7</ele>
        <time>2017-08-13T08:24:03Z</time>
      </trkpt>
      <trkpt lat="42.53225" lon="-0.15994">
        <ele>1123</ele>
        <time>2017-08-13T08:24:05Z</time>
      </trkpt>
      <trkpt lat="42.53226" lon="-0.15988">
        <ele>1123.4</ele>
        <time>2017-08-13T08:24:07Z</time>
      </trkpt>
      <trkpt lat="42.53226" lon="-0.15982">
        <ele>1123.7</ele>
        <time>2017-08-13T08:24:09Z</time>
      </trkpt>
      <trkpt lat="42.53226" lon="-0.15975">
        <ele>1124.3</ele>
        <time>2017-08-13T08:24:11Z</time>
      </trkpt>
      <trkpt lat="42.53224" lon="-0.15969">
        <ele>1125.3</ele>
        <time>2017-08-13T08:24:13Z</time>
      </trkpt>
      <trkpt lat="42.53221" lon="-0.15964">
        <ele>1126</ele>
        <time>2017-08-13T08:24:15Z</time>
      </trkpt>
      <trkpt lat="42.53219" lon="-0.15961">
        <ele>1126.3</ele>
        <time>2017-08-13T08:24:16Z</time>
      </trkpt>
      <trkpt lat="42.53217" lon="-0.15957">
        <ele>1126.5</ele>
        <time>2017-08-13T08:24:17Z</time>
      </trkpt>
      <trkpt lat="42.53216" lon="-0.15952">
        <ele>1126.9</ele>
        <time>2017-08-13T08:24:18Z</time>
      </trkpt>
      <trkpt lat="42.53214" lon="-0.15946">
        <ele>1127.2</ele>
        <time>2017-08-13T08:24:19Z</time>
      </trkpt>
      <trkpt lat="42.53213" lon="-0.1594">
        <ele>1127.8</ele>
        <time>2017-08-13T08:24:20Z</time>
      </trkpt>
      <trkpt lat="42.53211" lon="-0.15932">
        <ele>1128.4</ele>
        <time>2017-08-13T08:24:21Z</time>
      </trkpt>
      <trkpt lat="42.5321" lon="-0.15925">
        <ele>1129</ele>
        <time>2017-08-13T08:24:22Z</time>
      </trkpt>
      <trkpt lat="42.53209" lon="-0.15918">
        <ele>1129.6</ele>
        <time>2017-08-13T08:24:23Z</time>
      </trkpt>
      <trkpt lat="42.53209" lon="-0.1591">
        <ele>1130.1</ele>
        <time>2017-08-13T08:24:24Z</time>
      </trkpt>
      <trkpt lat="42.53209" lon="-0.15904">
        <ele>1130.5</ele>
        <time>2017-08-13T08:24:25Z</time>
      </trkpt>
      <trkpt lat="42.53208" lon="-0.15898">
        <ele>1131</ele>
        <time>2017-08-13T08:24:26Z</time>
      </trkpt>
      <trkpt lat="42.53207" lon="-0.15893">
        <ele>1131.4</ele>
        <time>2017-08-13T08:24:27Z</time>
      </trkpt>
      <trkpt lat="42.53207" lon="-0.15887">
        <ele>1131.8</ele>
        <time>2017-08-13T08:24:28Z</time>
      </trkpt>
      <trkpt lat="42.53205" lon="-0.15881">
        <ele>1132.2</ele>
        <time>2017-08-13T08:24:29Z</time>
      </trkpt>
      <trkpt lat="42.53204" lon="-0.15876">
        <ele>1132.8</ele>
        <time>2017-08-13T08:24:30Z</time>
      </trkpt>
      <trkpt lat="42.53202" lon="-0.15871">
        <ele>1133.4</ele>
        <time>2017-08-13T08:24:31Z</time>
      </trkpt>
      <trkpt lat="42.53201" lon="-0.15866">
        <ele>1134</ele>
        <time>2017-08-13T08:24:32Z</time>
      </trkpt>
      <trkpt lat="42.53199" lon="-0.1586">
        <ele>1134.7</ele>
        <time>2017-08-13T08:24:33Z</time>
      </trkpt>
      <trkpt lat="42.53198" lon="-0.15855">
        <ele>1135.3</ele>
        <time>2017-08-13T08:24:34Z</time>
      </trkpt>
      <trkpt lat="42.53198" lon="-0.15849">
        <ele>1136</ele>
        <time>2017-08-13T08:24:35Z</time>
      </trkpt>
      <trkpt lat="42.53197" lon="-0.15845">
        <ele>1136.6</ele>
        <time>2017-08-13T08:24:36Z</time>
      </trkpt>
      <trkpt lat="42.53197" lon="-0.1584">
        <ele>1137.1</ele>
        <time>2017-08-13T08:24:37Z</time>
      </trkpt>
      <trkpt lat="42.53197" lon="-0.15836">
        <ele>1137.5</ele>
        <time>2017-08-13T08:24:38Z</time>
      </trkpt>
      <trkpt lat="42.53196" lon="-0.15832">
        <ele>1138</ele>
        <time>2017-08-13T08:24:39Z</time>
      </trkpt>
      <trkpt lat="42.53195" lon="-0.15826">
        <ele>1138.7</ele>
        <time>2017-08-13T08:24:41Z</time>
      </trkpt>
      <trkpt lat="42.53194" lon="-0.1582">
        <ele>1139.5</ele>
        <time>2017-08-13T08:24:43Z</time>
      </trkpt>
      <trkpt lat="42.53193" lon="-0.15814">
        <ele>1140.7</ele>
        <time>2017-08-13T08:24:45Z</time>
      </trkpt>
      <trkpt lat="42.53192" lon="-0.15809">
        <ele>1141.8</ele>
        <time>2017-08-13T08:24:47Z</time>
      </trkpt>
      <trkpt lat="42.53191" lon="-0.15805">
        <ele>1142.1</ele>
        <time>2017-08-13T08:24:49Z</time>
      </trkpt>
      <trkpt lat="42.53191" lon="-0.15801">
        <ele>1142.4</ele>
        <time>2017-08-13T08:24:51Z</time>
      </trkpt>
      <trkpt lat="42.53189" lon="-0.15796">
        <ele>1142.8</ele>
        <time>2017-08-13T08:24:53Z</time>
      </trkpt>
      <trkpt lat="42.53188" lon="-0.15791">
        <ele>1143.5</ele>
        <time>2017-08-13T08:24:55Z</time>
      </trkpt>
      <trkpt lat="42.53185" lon="-0.15787">
        <ele>1144.3</ele>
        <time>2017-08-13T08:24:57Z</time>
      </trkpt>
      <trkpt lat="42.53183" lon="-0.15784">
        <ele>1144.7</ele>
        <time>2017-08-13T08:24:59Z</time>
      </trkpt>
      <trkpt lat="42.5318" lon="-0.1578">
        <ele>1144.9</ele>
        <time>2017-08-13T08:25:01Z</time>
      </trkpt>
      <trkpt lat="42.53177" lon="-0.15776">
        <ele>1144.9</ele>
        <time>2017-08-13T08:25:03Z</time>
      </trkpt>
      <trkpt lat="42.53174" lon="-0.15773">
        <ele>1144.9</ele>
        <time>2017-08-13T08:25:05Z</time>
      </trkpt>
      <trkpt lat="42.53172" lon="-0.15768">
        <ele>1144.8</ele>
        <time>2017-08-13T08:25:07Z</time>
      </trkpt>
      <trkpt lat="42.53169" lon="-0.15762">
        <ele>1144.6</ele>
        <time>2017-08-13T08:25:09Z</time>
      </trkpt>
      <trkpt lat="42.53169" lon="-0.15756">
        <ele>1144.2</ele>
        <time>2017-08-13T08:25:11Z</time>
      </trkpt>
      <trkpt lat="42.53168" lon="-0.1575">
        <ele>1143.4</ele>
        <time>2017-08-13T08:25:13Z</time>
      </trkpt>
      <trkpt lat="42.53169" lon="-0.15744">
        <ele>1142.7</ele>
        <time>2017-08-13T08:25:15Z</time>
      </trkpt>
      <trkpt lat="42.5317" lon="-0.15739">
        <ele>1142.3</ele>
        <time>2017-08-13T08:25:17Z</time>
      </trkpt>
      <trkpt lat="42.53171" lon="-0.15734">
        <ele>1141.7</ele>
        <time>2017-08-13T08:25:19Z</time>
      </trkpt>
      <trkpt lat="42.53173" lon="-0.1573">
        <ele>1140.9</ele>
        <time>2017-08-13T08:25:21Z</time>
      </trkpt>
      <trkpt lat="42.53174" lon="-0.15725">
        <ele>1140.4</ele>
        <time>2017-08-13T08:25:23Z</time>
      </trkpt>
      <trkpt lat="42.53175" lon="-0.15721">
        <ele>1140.1</ele>
        <time>2017-08-13T08:25:25Z</time>
      </trkpt>
      <trkpt lat="42.53175" lon="-0.15717">
        <ele>1139.8</ele>
        <time>2017-08-13T08:25:27Z</time>
      </trkpt>
      <trkpt lat="42.53175" lon="-0.15712">
        <ele>1139.6</ele>
        <time>2017-08-13T08:25:29Z</time>
      </trkpt>
      <trkpt lat="42.53174" lon="-0.15707">
        <ele>1139.4</ele>
        <time>2017-08-13T08:25:31Z</time>
      </trkpt>
      <trkpt lat="42.53173" lon="-0.15702">
        <ele>1139.3</ele>
        <time>2017-08-13T08:25:33Z</time>
      </trkpt>
      <trkpt lat="42.53171" lon="-0.15696">
        <ele>1138.9</ele>
        <time>2017-08-13T08:25:35Z</time>
      </trkpt>
      <trkpt lat="42.53169" lon="-0.15691">
        <ele>1138.7</ele>
        <time>2017-08-13T08:25:37Z</time>
      </trkpt>
      <trkpt lat="42.53168" lon="-0.15686">
        <ele>1138.7</ele>
        <time>2017-08-13T08:25:39Z</time>
      </trkpt>
      <trkpt lat="42.53165" lon="-0.15682">
        <ele>1138.7</ele>
        <time>2017-08-13T08:25:41Z</time>
      </trkpt>
      <trkpt lat="42.53164" lon="-0.15677">
        <ele>1138.7</ele>
        <time>2017-08-13T08:25:43Z</time>
      </trkpt>
      <trkpt lat="42.53163" lon="-0.1567">
        <ele>1138.7</ele>
        <time>2017-08-13T08:25:45Z</time>
      </trkpt>
      <trkpt lat="42.53161" lon="-0.15665">
        <ele>1138.9</ele>
        <time>2017-08-13T08:25:47Z</time>
      </trkpt>
      <trkpt lat="42.5316" lon="-0.15659">
        <ele>1139.3</ele>
        <time>2017-08-13T08:25:49Z</time>
      </trkpt>
      <trkpt lat="42.53158" lon="-0.15653">
        <ele>1139.7</ele>
        <time>2017-08-13T08:25:51Z</time>
      </trkpt>
      <trkpt lat="42.53156" lon="-0.15648">
        <ele>1140.1</ele>
        <time>2017-08-13T08:25:53Z</time>
      </trkpt>
      <trkpt lat="42.53155" lon="-0.15642">
        <ele>1140.4</ele>
        <time>2017-08-13T08:25:55Z</time>
      </trkpt>
      <trkpt lat="42.53154" lon="-0.15637">
        <ele>1140.7</ele>
        <time>2017-08-13T08:25:57Z</time>
      </trkpt>
      <trkpt lat="42.53153" lon="-0.15631">
        <ele>1141.5</ele>
        <time>2017-08-13T08:25:59Z</time>
      </trkpt>
      <trkpt lat="42.53153" lon="-0.15626">
        <ele>1142.2</ele>
        <time>2017-08-13T08:26:01Z</time>
      </trkpt>
      <trkpt lat="42.53152" lon="-0.15619">
        <ele>1142.8</ele>
        <time>2017-08-13T08:26:03Z</time>
      </trkpt>
      <trkpt lat="42.53151" lon="-0.15613">
        <ele>1143</ele>
        <time>2017-08-13T08:26:05Z</time>
      </trkpt>
      <trkpt lat="42.5315" lon="-0.15606">
        <ele>1143.3</ele>
        <time>2017-08-13T08:26:07Z</time>
      </trkpt>
      <trkpt lat="42.53149" lon="-0.15602">
        <ele>1143.4</ele>
        <time>2017-08-13T08:26:08Z</time>
      </trkpt>
      <trkpt lat="42.53148" lon="-0.15595">
        <ele>1143.6</ele>
        <time>2017-08-13T08:26:10Z</time>
      </trkpt>
      <trkpt lat="42.53147" lon="-0.15591">
        <ele>1143.6</ele>
        <time>2017-08-13T08:26:11Z</time>
      </trkpt>
      <trkpt lat="42.53146" lon="-0.15588">
        <ele>1143.7</ele>
        <time>2017-08-13T08:26:12Z</time>
      </trkpt>
      <trkpt lat="42.53146" lon="-0.15583">
        <ele>1143.8</ele>
        <time>2017-08-13T08:26:13Z</time>
      </trkpt>
      <trkpt lat="42.53146" lon="-0.15579">
        <ele>1143.9</ele>
        <time>2017-08-13T08:26:14Z</time>
      </trkpt>
      <trkpt lat="42.53145" lon="-0.15574">
        <ele>1144</ele>
        <time>2017-08-13T08:26:15Z</time>
      </trkpt>
      <trkpt lat="42.53145" lon="-0.1557">
        <ele>1144</ele>
        <time>2017-08-13T08:26:16Z</time>
      </trkpt>
      <trkpt lat="42.53146" lon="-0.15566">
        <ele>1144</ele>
        <time>2017-08-13T08:26:17Z</time>
      </trkpt>
      <trkpt lat="42.53146" lon="-0.15562">
        <ele>1144.1</ele>
        <time>2017-08-13T08:26:18Z</time>
      </trkpt>
      <trkpt lat="42.53146" lon="-0.15558">
        <ele>1144.1</ele>
        <time>2017-08-13T08:26:19Z</time>
      </trkpt>
      <trkpt lat="42.53146" lon="-0.15554">
        <ele>1144.1</ele>
        <time>2017-08-13T08:26:20Z</time>
      </trkpt>
      <trkpt lat="42.53147" lon="-0.1555">
        <ele>1143.9</ele>
        <time>2017-08-13T08:26:21Z</time>
      </trkpt>
      <trkpt lat="42.53147" lon="-0.15546">
        <ele>1143.7</ele>
        <time>2017-08-13T08:26:22Z</time>
      </trkpt>
      <trkpt lat="42.53147" lon="-0.15539">
        <ele>1143.4</ele>
        <time>2017-08-13T08:26:24Z</time>
      </trkpt>
      <trkpt lat="42.53148" lon="-0.15532">
        <ele>1143.3</ele>
        <time>2017-08-13T08:26:26Z</time>
      </trkpt>
      <trkpt lat="42.53149" lon="-0.15525">
        <ele>1143</ele>
        <time>2017-08-13T08:26:28Z</time>
      </trkpt>
      <trkpt lat="42.5315" lon="-0.15521">
        <ele>1142.9</ele>
        <time>2017-08-13T08:26:29Z</time>
      </trkpt>
      <trkpt lat="42.5315" lon="-0.15518">
        <ele>1142.8</ele>
        <time>2017-08-13T08:26:30Z</time>
      </trkpt>
      <trkpt lat="42.53151" lon="-0.15514">
        <ele>1142.8</ele>
        <time>2017-08-13T08:26:31Z</time>
      </trkpt>
      <trkpt lat="42.53151" lon="-0.1551">
        <ele>1142.9</ele>
        <time>2017-08-13T08:26:32Z</time>
      </trkpt>
      <trkpt lat="42.53152" lon="-0.15506">
        <ele>1143.1</ele>
        <time>2017-08-13T08:26:33Z</time>
      </trkpt>
      <trkpt lat="42.53151" lon="-0.15502">
        <ele>1143.3</ele>
        <time>2017-08-13T08:26:34Z</time>
      </trkpt>
      <trkpt lat="42.53151" lon="-0.15498">
        <ele>1143.5</ele>
        <time>2017-08-13T08:26:35Z</time>
      </trkpt>
      <trkpt lat="42.5315" lon="-0.15494">
        <ele>1143.7</ele>
        <time>2017-08-13T08:26:36Z</time>
      </trkpt>
      <trkpt lat="42.5315" lon="-0.15489">
        <ele>1143.8</ele>
        <time>2017-08-13T08:26:37Z</time>
      </trkpt>
      <trkpt lat="42.53149" lon="-0.15485">
        <ele>1144</ele>
        <time>2017-08-13T08:26:38Z</time>
      </trkpt>
      <trkpt lat="42.53147" lon="-0.15482">
        <ele>1144.2</ele>
        <time>2017-08-13T08:26:39Z</time>
      </trkpt>
      <trkpt lat="42.53146" lon="-0.15479">
        <ele>1144.3</ele>
        <time>2017-08-13T08:26:40Z</time>
      </trkpt>
      <trkpt lat="42.53144" lon="-0.15475">
        <ele>1144.5</ele>
        <time>2017-08-13T08:26:41Z</time>
      </trkpt>
      <trkpt lat="42.53142" lon="-0.15472">
        <ele>1144.7</ele>
        <time>2017-08-13T08:26:42Z</time>
      </trkpt>
      <trkpt lat="42.5314" lon="-0.15469">
        <ele>1144.8</ele>
        <time>2017-08-13T08:26:43Z</time>
      </trkpt>
      <trkpt lat="42.53138" lon="-0.15466">
        <ele>1145</ele>
        <time>2017-08-13T08:26:44Z</time>
      </trkpt>
      <trkpt lat="42.53136" lon="-0.15463">
        <ele>1145.2</ele>
        <time>2017-08-13T08:26:45Z</time>
      </trkpt>
      <trkpt lat="42.53134" lon="-0.1546">
        <ele>1145.4</ele>
        <time>2017-08-13T08:26:46Z</time>
      </trkpt>
      <trkpt lat="42.53132" lon="-0.15457">
        <ele>1145.6</ele>
        <time>2017-08-13T08:26:47Z</time>
      </trkpt>
      <trkpt lat="42.5313" lon="-0.15454">
        <ele>1145.7</ele>
        <time>2017-08-13T08:26:48Z</time>
      </trkpt>
      <trkpt lat="42.53128" lon="-0.1545">
        <ele>1145.9</ele>
        <time>2017-08-13T08:26:49Z</time>
      </trkpt>
      <trkpt lat="42.53126" lon="-0.15447">
        <ele>1146.2</ele>
        <time>2017-08-13T08:26:50Z</time>
      </trkpt>
      <trkpt lat="42.53124" lon="-0.15444">
        <ele>1146.5</ele>
        <time>2017-08-13T08:26:51Z</time>
      </trkpt>
      <trkpt lat="42.53122" lon="-0.15441">
        <ele>1146.8</ele>
        <time>2017-08-13T08:26:52Z</time>
      </trkpt>
      <trkpt lat="42.53119" lon="-0.15436">
        <ele>1147.8</ele>
        <time>2017-08-13T08:26:54Z</time>
      </trkpt>
      <trkpt lat="42.53116" lon="-0.15429">
        <ele>1149.5</ele>
        <time>2017-08-13T08:26:56Z</time>
      </trkpt>
      <trkpt lat="42.53115" lon="-0.15426">
        <ele>1150.1</ele>
        <time>2017-08-13T08:26:57Z</time>
      </trkpt>
      <trkpt lat="42.53111" lon="-0.15421">
        <ele>1151.1</ele>
        <time>2017-08-13T08:26:59Z</time>
      </trkpt>
      <trkpt lat="42.53109" lon="-0.15418">
        <ele>1151.7</ele>
        <time>2017-08-13T08:27:00Z</time>
      </trkpt>
      <trkpt lat="42.53106" lon="-0.15417">
        <ele>1152.5</ele>
        <time>2017-08-13T08:27:02Z</time>
      </trkpt>
      <trkpt lat="42.53102" lon="-0.15416">
        <ele>1153.3</ele>
        <time>2017-08-13T08:27:05Z</time>
      </trkpt>
      <trkpt lat="42.53097" lon="-0.15416">
        <ele>1154.4</ele>
        <time>2017-08-13T08:27:07Z</time>
      </trkpt>
      <trkpt lat="42.53092" lon="-0.15416">
        <ele>1155.4</ele>
        <time>2017-08-13T08:27:08Z</time>
      </trkpt>
      <trkpt lat="42.53085" lon="-0.15414">
        <ele>1157.2</ele>
        <time>2017-08-13T08:27:09Z</time>
      </trkpt>
      <trkpt lat="42.53079" lon="-0.15412">
        <ele>1158.7</ele>
        <time>2017-08-13T08:27:10Z</time>
      </trkpt>
      <trkpt lat="42.53076" lon="-0.15412">
        <ele>1160</ele>
        <time>2017-08-13T08:27:11Z</time>
      </trkpt>
      <trkpt lat="42.53072" lon="-0.15412">
        <ele>1162</ele>
        <time>2017-08-13T08:27:12Z</time>
      </trkpt>
      <trkpt lat="42.53069" lon="-0.15412">
        <ele>1163.7</ele>
        <time>2017-08-13T08:27:13Z</time>
      </trkpt>
      <trkpt lat="42.53066" lon="-0.15413">
        <ele>1164.9</ele>
        <time>2017-08-13T08:27:15Z</time>
      </trkpt>
      <trkpt lat="42.53063" lon="-0.15414">
        <ele>1165.7</ele>
        <time>2017-08-13T08:27:17Z</time>
      </trkpt>
      <trkpt lat="42.53058" lon="-0.15416">
        <ele>1166.6</ele>
        <time>2017-08-13T08:27:20Z</time>
      </trkpt>
      <trkpt lat="42.53054" lon="-0.15414">
        <ele>1167.5</ele>
        <time>2017-08-13T08:27:22Z</time>
      </trkpt>
      <trkpt lat="42.5305" lon="-0.15412">
        <ele>1169.5</ele>
        <time>2017-08-13T08:27:24Z</time>
      </trkpt>
      <trkpt lat="42.53045" lon="-0.15409">
        <ele>1171.1</ele>
        <time>2017-08-13T08:27:26Z</time>
      </trkpt>
      <trkpt lat="42.53041" lon="-0.15407">
        <ele>1172.4</ele>
        <time>2017-08-13T08:27:28Z</time>
      </trkpt>
      <trkpt lat="42.53038" lon="-0.15404">
        <ele>1173.1</ele>
        <time>2017-08-13T08:27:30Z</time>
      </trkpt>
      <trkpt lat="42.53034" lon="-0.15401">
        <ele>1173.7</ele>
        <time>2017-08-13T08:27:32Z</time>
      </trkpt>
      <trkpt lat="42.5303" lon="-0.15397">
        <ele>1174.4</ele>
        <time>2017-08-13T08:27:34Z</time>
      </trkpt>
      <trkpt lat="42.53027" lon="-0.15395">
        <ele>1175.2</ele>
        <time>2017-08-13T08:27:36Z</time>
      </trkpt>
      <trkpt lat="42.53024" lon="-0.15391">
        <ele>1176.2</ele>
        <time>2017-08-13T08:27:38Z</time>
      </trkpt>
      <trkpt lat="42.53021" lon="-0.15385">
        <ele>1177</ele>
        <time>2017-08-13T08:27:40Z</time>
      </trkpt>
      <trkpt lat="42.53019" lon="-0.15382">
        <ele>1177.1</ele>
        <time>2017-08-13T08:27:41Z</time>
      </trkpt>
      <trkpt lat="42.53018" lon="-0.15378">
        <ele>1177</ele>
        <time>2017-08-13T08:27:42Z</time>
      </trkpt>
      <trkpt lat="42.53019" lon="-0.15373">
        <ele>1177</ele>
        <time>2017-08-13T08:27:43Z</time>
      </trkpt>
      <trkpt lat="42.5302" lon="-0.15368">
        <ele>1176.7</ele>
        <time>2017-08-13T08:27:44Z</time>
      </trkpt>
      <trkpt lat="42.53022" lon="-0.15364">
        <ele>1176.4</ele>
        <time>2017-08-13T08:27:45Z</time>
      </trkpt>
      <trkpt lat="42.53025" lon="-0.1536">
        <ele>1175.8</ele>
        <time>2017-08-13T08:27:46Z</time>
      </trkpt>
      <trkpt lat="42.53028" lon="-0.15357">
        <ele>1174.9</ele>
        <time>2017-08-13T08:27:47Z</time>
      </trkpt>
      <trkpt lat="42.53031" lon="-0.15354">
        <ele>1174</ele>
        <time>2017-08-13T08:27:48Z</time>
      </trkpt>
      <trkpt lat="42.53034" lon="-0.15351">
        <ele>1173.2</ele>
        <time>2017-08-13T08:27:49Z</time>
      </trkpt>
      <trkpt lat="42.53038" lon="-0.15349">
        <ele>1172.3</ele>
        <time>2017-08-13T08:27:50Z</time>
      </trkpt>
      <trkpt lat="42.53042" lon="-0.15346">
        <ele>1170.8</ele>
        <time>2017-08-13T08:27:51Z</time>
      </trkpt>
      <trkpt lat="42.53046" lon="-0.15344">
        <ele>1169.5</ele>
        <time>2017-08-13T08:27:52Z</time>
      </trkpt>
      <trkpt lat="42.5305" lon="-0.15342">
        <ele>1168.6</ele>
        <time>2017-08-13T08:27:53Z</time>
      </trkpt>
      <trkpt lat="42.53054" lon="-0.1534">
        <ele>1167.7</ele>
        <time>2017-08-13T08:27:54Z</time>
      </trkpt>
      <trkpt lat="42.53058" lon="-0.15337">
        <ele>1166.8</ele>
        <time>2017-08-13T08:27:55Z</time>
      </trkpt>
      <trkpt lat="42.53061" lon="-0.15334">
        <ele>1165.8</ele>
        <time>2017-08-13T08:27:56Z</time>
      </trkpt>
      <trkpt lat="42.53064" lon="-0.15329">
        <ele>1164.8</ele>
        <time>2017-08-13T08:27:57Z</time>
      </trkpt>
      <trkpt lat="42.53067" lon="-0.15325">
        <ele>1163.9</ele>
        <time>2017-08-13T08:27:58Z</time>
      </trkpt>
      <trkpt lat="42.53069" lon="-0.15321">
        <ele>1163.1</ele>
        <time>2017-08-13T08:27:59Z</time>
      </trkpt>
      <trkpt lat="42.53071" lon="-0.15317">
        <ele>1162.2</ele>
        <time>2017-08-13T08:28:00Z</time>
      </trkpt>
      <trkpt lat="42.53073" lon="-0.15313">
        <ele>1161.4</ele>
        <time>2017-08-13T08:28:01Z</time>
      </trkpt>
      <trkpt lat="42.53075" lon="-0.15308">
        <ele>1160.6</ele>
        <time>2017-08-13T08:28:02Z</time>
      </trkpt>
      <trkpt lat="42.53077" lon="-0.15304">
        <ele>1159.8</ele>
        <time>2017-08-13T08:28:03Z</time>
      </trkpt>
      <trkpt lat="42.53079" lon="-0.15299">
        <ele>1159</ele>
        <time>2017-08-13T08:28:04Z</time>
      </trkpt>
      <trkpt lat="42.53081" lon="-0.15293">
        <ele>1158.4</ele>
        <time>2017-08-13T08:28:05Z</time>
      </trkpt>
      <trkpt lat="42.53083" lon="-0.15288">
        <ele>1157.9</ele>
        <time>2017-08-13T08:28:06Z</time>
      </trkpt>
      <trkpt lat="42.53085" lon="-0.15283">
        <ele>1157.4</ele>
        <time>2017-08-13T08:28:07Z</time>
      </trkpt>
      <trkpt lat="42.53086" lon="-0.15277">
        <ele>1156.8</ele>
        <time>2017-08-13T08:28:08Z</time>
      </trkpt>
      <trkpt lat="42.53088" lon="-0.15271">
        <ele>1156.4</ele>
        <time>2017-08-13T08:28:09Z</time>
      </trkpt>
      <trkpt lat="42.53089" lon="-0.15265">
        <ele>1155.9</ele>
        <time>2017-08-13T08:28:10Z</time>
      </trkpt>
      <trkpt lat="42.53091" lon="-0.15259">
        <ele>1155.5</ele>
        <time>2017-08-13T08:28:11Z</time>
      </trkpt>
      <trkpt lat="42.53092" lon="-0.15254">
        <ele>1155.3</ele>
        <time>2017-08-13T08:28:12Z</time>
      </trkpt>
      <trkpt lat="42.53093" lon="-0.15249">
        <ele>1155.1</ele>
        <time>2017-08-13T08:28:13Z</time>
      </trkpt>
      <trkpt lat="42.53094" lon="-0.15244">
        <ele>1154.9</ele>
        <time>2017-08-13T08:28:14Z</time>
      </trkpt>
      <trkpt lat="42.53095" lon="-0.1524">
        <ele>1154.8</ele>
        <time>2017-08-13T08:28:15Z</time>
      </trkpt>
      <trkpt lat="42.53095" lon="-0.15236">
        <ele>1154.6</ele>
        <time>2017-08-13T08:28:16Z</time>
      </trkpt>
      <trkpt lat="42.53096" lon="-0.15232">
        <ele>1154.5</ele>
        <time>2017-08-13T08:28:17Z</time>
      </trkpt>
      <trkpt lat="42.53096" lon="-0.15229">
        <ele>1154.2</ele>
        <time>2017-08-13T08:28:18Z</time>
      </trkpt>
      <trkpt lat="42.53097" lon="-0.15225">
        <ele>1154</ele>
        <time>2017-08-13T08:28:19Z</time>
      </trkpt>
      <trkpt lat="42.53097" lon="-0.15221">
        <ele>1153.9</ele>
        <time>2017-08-13T08:28:20Z</time>
      </trkpt>
      <trkpt lat="42.53098" lon="-0.15217">
        <ele>1153.9</ele>
        <time>2017-08-13T08:28:21Z</time>
      </trkpt>
      <trkpt lat="42.53098" lon="-0.15213">
        <ele>1153.9</ele>
        <time>2017-08-13T08:28:22Z</time>
      </trkpt>
      <trkpt lat="42.53098" lon="-0.1521">
        <ele>1154</ele>
        <time>2017-08-13T08:28:23Z</time>
      </trkpt>
      <trkpt lat="42.53098" lon="-0.15206">
        <ele>1154.1</ele>
        <time>2017-08-13T08:28:24Z</time>
      </trkpt>
      <trkpt lat="42.53098" lon="-0.15199">
        <ele>1154.4</ele>
        <time>2017-08-13T08:28:26Z</time>
      </trkpt>
      <trkpt lat="42.53096" lon="-0.15193">
        <ele>1155</ele>
        <time>2017-08-13T08:28:28Z</time>
      </trkpt>
      <trkpt lat="42.53094" lon="-0.15187">
        <ele>1155.8</ele>
        <time>2017-08-13T08:28:30Z</time>
      </trkpt>
      <trkpt lat="42.53091" lon="-0.15182">
        <ele>1156.6</ele>
        <time>2017-08-13T08:28:32Z</time>
      </trkpt>
      <trkpt lat="42.53089" lon="-0.15177">
        <ele>1157.2</ele>
        <time>2017-08-13T08:28:34Z</time>
      </trkpt>
      <trkpt lat="42.53087" lon="-0.15172">
        <ele>1157.9</ele>
        <time>2017-08-13T08:28:36Z</time>
      </trkpt>
      <trkpt lat="42.53083" lon="-0.15169">
        <ele>1158.5</ele>
        <time>2017-08-13T08:28:38Z</time>
      </trkpt>
      <trkpt lat="42.5308" lon="-0.15166">
        <ele>1159.4</ele>
        <time>2017-08-13T08:28:40Z</time>
      </trkpt>
      <trkpt lat="42.53079" lon="-0.15162">
        <ele>1160.6</ele>
        <time>2017-08-13T08:28:42Z</time>
      </trkpt>
      <trkpt lat="42.53077" lon="-0.15157">
        <ele>1162.1</ele>
        <time>2017-08-13T08:28:44Z</time>
      </trkpt>
      <trkpt lat="42.53076" lon="-0.15154">
        <ele>1162.7</ele>
        <time>2017-08-13T08:28:46Z</time>
      </trkpt>
      <trkpt lat="42.53074" lon="-0.15151">
        <ele>1163.3</ele>
        <time>2017-08-13T08:28:48Z</time>
      </trkpt>
      <trkpt lat="42.53072" lon="-0.15147">
        <ele>1164.2</ele>
        <time>2017-08-13T08:28:50Z</time>
      </trkpt>
      <trkpt lat="42.53069" lon="-0.15144">
        <ele>1165.1</ele>
        <time>2017-08-13T08:28:52Z</time>
      </trkpt>
      <trkpt lat="42.53066" lon="-0.15141">
        <ele>1166.7</ele>
        <time>2017-08-13T08:28:54Z</time>
      </trkpt>
      <trkpt lat="42.53062" lon="-0.15138">
        <ele>1168.6</ele>
        <time>2017-08-13T08:28:56Z</time>
      </trkpt>
      <trkpt lat="42.53059" lon="-0.15134">
        <ele>1169.5</ele>
        <time>2017-08-13T08:28:58Z</time>
      </trkpt>
      <trkpt lat="42.53056" lon="-0.15131">
        <ele>1170.2</ele>
        <time>2017-08-13T08:29:00Z</time>
      </trkpt>
      <trkpt lat="42.53055" lon="-0.15127">
        <ele>1171.2</ele>
        <time>2017-08-13T08:29:02Z</time>
      </trkpt>
      <trkpt lat="42.53053" lon="-0.15123">
        <ele>1172.5</ele>
        <time>2017-08-13T08:29:04Z</time>
      </trkpt>
      <trkpt lat="42.53052" lon="-0.15118">
        <ele>1173.7</ele>
        <time>2017-08-13T08:29:07Z</time>
      </trkpt>
      <trkpt lat="42.5305" lon="-0.15114">
        <ele>1174.5</ele>
        <time>2017-08-13T08:29:09Z</time>
      </trkpt>
      <trkpt lat="42.53049" lon="-0.15111">
        <ele>1175.1</ele>
        <time>2017-08-13T08:29:11Z</time>
      </trkpt>
      <trkpt lat="42.53046" lon="-0.15109">
        <ele>1175.9</ele>
        <time>2017-08-13T08:29:13Z</time>
      </trkpt>
      <trkpt lat="42.53044" lon="-0.15106">
        <ele>1176.5</ele>
        <time>2017-08-13T08:29:15Z</time>
      </trkpt>
      <trkpt lat="42.53042" lon="-0.15103">
        <ele>1177.2</ele>
        <time>2017-08-13T08:29:17Z</time>
      </trkpt>
      <trkpt lat="42.53039" lon="-0.15099">
        <ele>1177.7</ele>
        <time>2017-08-13T08:29:19Z</time>
      </trkpt>
      <trkpt lat="42.53036" lon="-0.15096">
        <ele>1178.1</ele>
        <time>2017-08-13T08:29:21Z</time>
      </trkpt>
      <trkpt lat="42.53034" lon="-0.15093">
        <ele>1178.6</ele>
        <time>2017-08-13T08:29:23Z</time>
      </trkpt>
      <trkpt lat="42.53032" lon="-0.1509">
        <ele>1179.4</ele>
        <time>2017-08-13T08:29:25Z</time>
      </trkpt>
      <trkpt lat="42.53031" lon="-0.15087">
        <ele>1180</ele>
        <time>2017-08-13T08:29:27Z</time>
      </trkpt>
      <trkpt lat="42.53028" lon="-0.15083">
        <ele>1180.5</ele>
        <time>2017-08-13T08:29:29Z</time>
      </trkpt>
      <trkpt lat="42.53026" lon="-0.1508">
        <ele>1180.8</ele>
        <time>2017-08-13T08:29:31Z</time>
      </trkpt>
      <trkpt lat="42.53024" lon="-0.15075">
        <ele>1181.2</ele>
        <time>2017-08-13T08:29:33Z</time>
      </trkpt>
      <trkpt lat="42.53022" lon="-0.1507">
        <ele>1181.6</ele>
        <time>2017-08-13T08:29:35Z</time>
      </trkpt>
      <trkpt lat="42.53021" lon="-0.15065">
        <ele>1182.3</ele>
        <time>2017-08-13T08:29:37Z</time>
      </trkpt>
      <trkpt lat="42.53021" lon="-0.1506">
        <ele>1183.1</ele>
        <time>2017-08-13T08:29:39Z</time>
      </trkpt>
      <trkpt lat="42.53019" lon="-0.15055">
        <ele>1183.7</ele>
        <time>2017-08-13T08:29:41Z</time>
      </trkpt>
      <trkpt lat="42.53017" lon="-0.15048">
        <ele>1184</ele>
        <time>2017-08-13T08:29:43Z</time>
      </trkpt>
      <trkpt lat="42.53015" lon="-0.15045">
        <ele>1184.1</ele>
        <time>2017-08-13T08:29:44Z</time>
      </trkpt>
      <trkpt lat="42.53014" lon="-0.15041">
        <ele>1184.3</ele>
        <time>2017-08-13T08:29:45Z</time>
      </trkpt>
      <trkpt lat="42.53013" lon="-0.15038">
        <ele>1184.4</ele>
        <time>2017-08-13T08:29:46Z</time>
      </trkpt>
      <trkpt lat="42.53012" lon="-0.15035">
        <ele>1184.5</ele>
        <time>2017-08-13T08:29:47Z</time>
      </trkpt>
      <trkpt lat="42.5301" lon="-0.15031">
        <ele>1184.6</ele>
        <time>2017-08-13T08:29:48Z</time>
      </trkpt>
      <trkpt lat="42.53008" lon="-0.15028">
        <ele>1184.6</ele>
        <time>2017-08-13T08:29:49Z</time>
      </trkpt>
      <trkpt lat="42.53006" lon="-0.15025">
        <ele>1184.7</ele>
        <time>2017-08-13T08:29:50Z</time>
      </trkpt>
      <trkpt lat="42.53004" lon="-0.15022">
        <ele>1184.7</ele>
        <time>2017-08-13T08:29:51Z</time>
      </trkpt>
      <trkpt lat="42.53002" lon="-0.15016">
        <ele>1184.8</ele>
        <time>2017-08-13T08:29:53Z</time>
      </trkpt>
      <trkpt lat="42.53001" lon="-0.15008">
        <ele>1184.9</ele>
        <time>2017-08-13T08:29:55Z</time>
      </trkpt>
      <trkpt lat="42.52999" lon="-0.15002">
        <ele>1185</ele>
        <time>2017-08-13T08:29:57Z</time>
      </trkpt>
      <trkpt lat="42.52997" lon="-0.14997">
        <ele>1184.9</ele>
        <time>2017-08-13T08:29:59Z</time>
      </trkpt>
      <trkpt lat="42.52994" lon="-0.14992">
        <ele>1184.9</ele>
        <time>2017-08-13T08:30:01Z</time>
      </trkpt>
      <trkpt lat="42.52991" lon="-0.14988">
        <ele>1184.9</ele>
        <time>2017-08-13T08:30:03Z</time>
      </trkpt>
      <trkpt lat="42.52988" lon="-0.14984">
        <ele>1185</ele>
        <time>2017-08-13T08:30:05Z</time>
      </trkpt>
      <trkpt lat="42.52985" lon="-0.14981">
        <ele>1185.1</ele>
        <time>2017-08-13T08:30:07Z</time>
      </trkpt>
      <trkpt lat="42.52983" lon="-0.14977">
        <ele>1185.4</ele>
        <time>2017-08-13T08:30:09Z</time>
      </trkpt>
      <trkpt lat="42.52981" lon="-0.14974">
        <ele>1185.7</ele>
        <time>2017-08-13T08:30:11Z</time>
      </trkpt>
      <trkpt lat="42.52979" lon="-0.1497">
        <ele>1185.9</ele>
        <time>2017-08-13T08:30:13Z</time>
      </trkpt>
      <trkpt lat="42.52977" lon="-0.14967">
        <ele>1186.1</ele>
        <time>2017-08-13T08:30:15Z</time>
      </trkpt>
      <trkpt lat="42.52975" lon="-0.14963">
        <ele>1186.4</ele>
        <time>2017-08-13T08:30:17Z</time>
      </trkpt>
      <trkpt lat="42.52972" lon="-0.1496">
        <ele>1186.8</ele>
        <time>2017-08-13T08:30:19Z</time>
      </trkpt>
      <trkpt lat="42.52969" lon="-0.14957">
        <ele>1187.4</ele>
        <time>2017-08-13T08:30:21Z</time>
      </trkpt>
      <trkpt lat="42.52966" lon="-0.14953">
        <ele>1188.1</ele>
        <time>2017-08-13T08:30:23Z</time>
      </trkpt>
      <trkpt lat="42.52963" lon="-0.14949">
        <ele>1188.7</ele>
        <time>2017-08-13T08:30:25Z</time>
      </trkpt>
      <trkpt lat="42.52959" lon="-0.14945">
        <ele>1189.2</ele>
        <time>2017-08-13T08:30:27Z</time>
      </trkpt>
      <trkpt lat="42.52956" lon="-0.14942">
        <ele>1189.4</ele>
        <time>2017-08-13T08:30:28Z</time>
      </trkpt>
      <trkpt lat="42.52954" lon="-0.1494">
        <ele>1189.7</ele>
        <time>2017-08-13T08:30:29Z</time>
      </trkpt>
      <trkpt lat="42.52951" lon="-0.14938">
        <ele>1190.3</ele>
        <time>2017-08-13T08:30:30Z</time>
      </trkpt>
      <trkpt lat="42.52948" lon="-0.14935">
        <ele>1190.9</ele>
        <time>2017-08-13T08:30:31Z</time>
      </trkpt>
      <trkpt lat="42.52946" lon="-0.14933">
        <ele>1191.2</ele>
        <time>2017-08-13T08:30:32Z</time>
      </trkpt>
      <trkpt lat="42.52942" lon="-0.14931">
        <ele>1191.5</ele>
        <time>2017-08-13T08:30:34Z</time>
      </trkpt>
      <trkpt lat="42.52938" lon="-0.14929">
        <ele>1191.8</ele>
        <time>2017-08-13T08:30:36Z</time>
      </trkpt>
      <trkpt lat="42.52935" lon="-0.14928">
        <ele>1192.1</ele>
        <time>2017-08-13T08:30:38Z</time>
      </trkpt>
      <trkpt lat="42.52932" lon="-0.14927">
        <ele>1192.5</ele>
        <time>2017-08-13T08:30:41Z</time>
      </trkpt>
      <trkpt lat="42.52928" lon="-0.14925">
        <ele>1193.2</ele>
        <time>2017-08-13T08:30:43Z</time>
      </trkpt>
      <trkpt lat="42.52924" lon="-0.14923">
        <ele>1193.6</ele>
        <time>2017-08-13T08:30:45Z</time>
      </trkpt>
      <trkpt lat="42.52921" lon="-0.1492">
        <ele>1194</ele>
        <time>2017-08-13T08:30:47Z</time>
      </trkpt>
      <trkpt lat="42.52918" lon="-0.14918">
        <ele>1194.2</ele>
        <time>2017-08-13T08:30:49Z</time>
      </trkpt>
      <trkpt lat="42.52915" lon="-0.14916">
        <ele>1194.5</ele>
        <time>2017-08-13T08:30:51Z</time>
      </trkpt>
      <trkpt lat="42.52912" lon="-0.14914">
        <ele>1194.7</ele>
        <time>2017-08-13T08:30:53Z</time>
      </trkpt>
      <trkpt lat="42.52909" lon="-0.14912">
        <ele>1195.1</ele>
        <time>2017-08-13T08:30:55Z</time>
      </trkpt>
      <trkpt lat="42.52905" lon="-0.14909">
        <ele>1195.5</ele>
        <time>2017-08-13T08:30:57Z</time>
      </trkpt>
      <trkpt lat="42.52901" lon="-0.14907">
        <ele>1196</ele>
        <time>2017-08-13T08:30:59Z</time>
      </trkpt>
      <trkpt lat="42.52899" lon="-0.14906">
        <ele>1196.5</ele>
        <time>2017-08-13T08:31:00Z</time>
      </trkpt>
      <trkpt lat="42.52896" lon="-0.14904">
        <ele>1197.1</ele>
        <time>2017-08-13T08:31:01Z</time>
      </trkpt>
      <trkpt lat="42.52893" lon="-0.14903">
        <ele>1197.8</ele>
        <time>2017-08-13T08:31:03Z</time>
      </trkpt>
      <trkpt lat="42.52888" lon="-0.14902">
        <ele>1198.2</ele>
        <time>2017-08-13T08:31:06Z</time>
      </trkpt>
      <trkpt lat="42.52884" lon="-0.149">
        <ele>1198.6</ele>
        <time>2017-08-13T08:31:08Z</time>
      </trkpt>
      <trkpt lat="42.5288" lon="-0.14897">
        <ele>1199</ele>
        <time>2017-08-13T08:31:10Z</time>
      </trkpt>
      <trkpt lat="42.52875" lon="-0.14894">
        <ele>1199.4</ele>
        <time>2017-08-13T08:31:12Z</time>
      </trkpt>
      <trkpt lat="42.52871" lon="-0.14892">
        <ele>1199.9</ele>
        <time>2017-08-13T08:31:14Z</time>
      </trkpt>
      <trkpt lat="42.52868" lon="-0.1489">
        <ele>1200.3</ele>
        <time>2017-08-13T08:31:15Z</time>
      </trkpt>
      <trkpt lat="42.52865" lon="-0.14888">
        <ele>1201</ele>
        <time>2017-08-13T08:31:16Z</time>
      </trkpt>
      <trkpt lat="42.52863" lon="-0.14886">
        <ele>1201.5</ele>
        <time>2017-08-13T08:31:17Z</time>
      </trkpt>
      <trkpt lat="42.5286" lon="-0.14884">
        <ele>1201.9</ele>
        <time>2017-08-13T08:31:18Z</time>
      </trkpt>
      <trkpt lat="42.52857" lon="-0.14882">
        <ele>1202.2</ele>
        <time>2017-08-13T08:31:19Z</time>
      </trkpt>
      <trkpt lat="42.52854" lon="-0.1488">
        <ele>1202.4</ele>
        <time>2017-08-13T08:31:20Z</time>
      </trkpt>
      <trkpt lat="42.5285" lon="-0.14877">
        <ele>1202.8</ele>
        <time>2017-08-13T08:31:22Z</time>
      </trkpt>
      <trkpt lat="42.52846" lon="-0.14873">
        <ele>1203.2</ele>
        <time>2017-08-13T08:31:24Z</time>
      </trkpt>
      <trkpt lat="42.52843" lon="-0.14872">
        <ele>1203.6</ele>
        <time>2017-08-13T08:31:25Z</time>
      </trkpt>
      <trkpt lat="42.52839" lon="-0.14868">
        <ele>1204.7</ele>
        <time>2017-08-13T08:31:27Z</time>
      </trkpt>
      <trkpt lat="42.52835" lon="-0.14863">
        <ele>1206</ele>
        <time>2017-08-13T08:31:29Z</time>
      </trkpt>
      <trkpt lat="42.52831" lon="-0.14861">
        <ele>1206.6</ele>
        <time>2017-08-13T08:31:31Z</time>
      </trkpt>
      <trkpt lat="42.52829" lon="-0.14858">
        <ele>1207</ele>
        <time>2017-08-13T08:31:33Z</time>
      </trkpt>
      <trkpt lat="42.52826" lon="-0.14854">
        <ele>1207.5</ele>
        <time>2017-08-13T08:31:35Z</time>
      </trkpt>
      <trkpt lat="42.52824" lon="-0.1485">
        <ele>1208</ele>
        <time>2017-08-13T08:31:37Z</time>
      </trkpt>
      <trkpt lat="42.52821" lon="-0.14846">
        <ele>1208.6</ele>
        <time>2017-08-13T08:31:39Z</time>
      </trkpt>
      <trkpt lat="42.52817" lon="-0.14842">
        <ele>1209.4</ele>
        <time>2017-08-13T08:31:41Z</time>
      </trkpt>
      <trkpt lat="42.52814" lon="-0.14839">
        <ele>1210.2</ele>
        <time>2017-08-13T08:31:42Z</time>
      </trkpt>
      <trkpt lat="42.52812" lon="-0.14837">
        <ele>1211</ele>
        <time>2017-08-13T08:31:44Z</time>
      </trkpt>
      <trkpt lat="42.5281" lon="-0.14835">
        <ele>1211.4</ele>
        <time>2017-08-13T08:31:46Z</time>
      </trkpt>
      <trkpt lat="42.52806" lon="-0.14831">
        <ele>1211.8</ele>
        <time>2017-08-13T08:31:48Z</time>
      </trkpt>
      <trkpt lat="42.52802" lon="-0.14828">
        <ele>1212.2</ele>
        <time>2017-08-13T08:31:50Z</time>
      </trkpt>
      <trkpt lat="42.52798" lon="-0.14825">
        <ele>1213.1</ele>
        <time>2017-08-13T08:31:52Z</time>
      </trkpt>
      <trkpt lat="42.52795" lon="-0.14821">
        <ele>1213.6</ele>
        <time>2017-08-13T08:31:54Z</time>
      </trkpt>
      <trkpt lat="42.52792" lon="-0.14817">
        <ele>1213.8</ele>
        <time>2017-08-13T08:31:56Z</time>
      </trkpt>
      <trkpt lat="42.5279" lon="-0.14813">
        <ele>1214.1</ele>
        <time>2017-08-13T08:31:58Z</time>
      </trkpt>
      <trkpt lat="42.52787" lon="-0.14809">
        <ele>1214.4</ele>
        <time>2017-08-13T08:32:00Z</time>
      </trkpt>
      <trkpt lat="42.52784" lon="-0.14806">
        <ele>1214.9</ele>
        <time>2017-08-13T08:32:02Z</time>
      </trkpt>
      <trkpt lat="42.52781" lon="-0.14802">
        <ele>1215.2</ele>
        <time>2017-08-13T08:32:04Z</time>
      </trkpt>
      <trkpt lat="42.52779" lon="-0.14798">
        <ele>1215.4</ele>
        <time>2017-08-13T08:32:06Z</time>
      </trkpt>
      <trkpt lat="42.52776" lon="-0.14796">
        <ele>1215.6</ele>
        <time>2017-08-13T08:32:08Z</time>
      </trkpt>
      <trkpt lat="42.52773" lon="-0.14793">
        <ele>1215.9</ele>
        <time>2017-08-13T08:32:10Z</time>
      </trkpt>
      <trkpt lat="42.52771" lon="-0.14789">
        <ele>1216.2</ele>
        <time>2017-08-13T08:32:12Z</time>
      </trkpt>
      <trkpt lat="42.52769" lon="-0.14784">
        <ele>1216.4</ele>
        <time>2017-08-13T08:32:14Z</time>
      </trkpt>
      <trkpt lat="42.52768" lon="-0.14779">
        <ele>1216.5</ele>
        <time>2017-08-13T08:32:16Z</time>
      </trkpt>
      <trkpt lat="42.52766" lon="-0.14776">
        <ele>1216.6</ele>
        <time>2017-08-13T08:32:18Z</time>
      </trkpt>
      <trkpt lat="42.52764" lon="-0.14772">
        <ele>1216.6</ele>
        <time>2017-08-13T08:32:20Z</time>
      </trkpt>
      <trkpt lat="42.52762" lon="-0.14768">
        <ele>1216.8</ele>
        <time>2017-08-13T08:32:22Z</time>
      </trkpt>
      <trkpt lat="42.52761" lon="-0.14764">
        <ele>1217</ele>
        <time>2017-08-13T08:32:24Z</time>
      </trkpt>
      <trkpt lat="42.5276" lon="-0.1476">
        <ele>1217</ele>
        <time>2017-08-13T08:32:26Z</time>
      </trkpt>
      <trkpt lat="42.52758" lon="-0.14756">
        <ele>1216.9</ele>
        <time>2017-08-13T08:32:28Z</time>
      </trkpt>
      <trkpt lat="42.52757" lon="-0.14752">
        <ele>1216.9</ele>
        <time>2017-08-13T08:32:30Z</time>
      </trkpt>
      <trkpt lat="42.52756" lon="-0.14749">
        <ele>1216.9</ele>
        <time>2017-08-13T08:32:32Z</time>
      </trkpt>
      <trkpt lat="42.52754" lon="-0.14746">
        <ele>1216.8</ele>
        <time>2017-08-13T08:32:34Z</time>
      </trkpt>
      <trkpt lat="42.52754" lon="-0.1474">
        <ele>1216.8</ele>
        <time>2017-08-13T08:32:37Z</time>
      </trkpt>
      <trkpt lat="42.52754" lon="-0.14736">
        <ele>1216.8</ele>
        <time>2017-08-13T08:32:39Z</time>
      </trkpt>
      <trkpt lat="42.52754" lon="-0.14732">
        <ele>1216.8</ele>
        <time>2017-08-13T08:32:41Z</time>
      </trkpt>
      <trkpt lat="42.52751" lon="-0.14727">
        <ele>1216.9</ele>
        <time>2017-08-13T08:32:44Z</time>
      </trkpt>
      <trkpt lat="42.52749" lon="-0.14724">
        <ele>1217.3</ele>
        <time>2017-08-13T08:32:46Z</time>
      </trkpt>
      <trkpt lat="42.52747" lon="-0.14722">
        <ele>1217.5</ele>
        <time>2017-08-13T08:32:48Z</time>
      </trkpt>
      <trkpt lat="42.52745" lon="-0.14718">
        <ele>1217.8</ele>
        <time>2017-08-13T08:32:50Z</time>
      </trkpt>
      <trkpt lat="42.52743" lon="-0.14715">
        <ele>1218</ele>
        <time>2017-08-13T08:32:52Z</time>
      </trkpt>
      <trkpt lat="42.52742" lon="-0.1471">
        <ele>1218.6</ele>
        <time>2017-08-13T08:32:55Z</time>
      </trkpt>
      <trkpt lat="42.52742" lon="-0.14705">
        <ele>1218.9</ele>
        <time>2017-08-13T08:32:58Z</time>
      </trkpt>
      <trkpt lat="42.5274" lon="-0.14702">
        <ele>1219</ele>
        <time>2017-08-13T08:33:00Z</time>
      </trkpt>
      <trkpt lat="42.52736" lon="-0.147">
        <ele>1219.2</ele>
        <time>2017-08-13T08:33:03Z</time>
      </trkpt>
      <trkpt lat="42.52733" lon="-0.14697">
        <ele>1219.4</ele>
        <time>2017-08-13T08:33:06Z</time>
      </trkpt>
      <trkpt lat="42.52731" lon="-0.14693">
        <ele>1219.5</ele>
        <time>2017-08-13T08:33:08Z</time>
      </trkpt>
      <trkpt lat="42.5273" lon="-0.14689">
        <ele>1219.5</ele>
        <time>2017-08-13T08:33:10Z</time>
      </trkpt>
      <trkpt lat="42.52729" lon="-0.14685">
        <ele>1219.6</ele>
        <time>2017-08-13T08:33:12Z</time>
      </trkpt>
      <trkpt lat="42.52728" lon="-0.14681">
        <ele>1219.7</ele>
        <time>2017-08-13T08:33:14Z</time>
      </trkpt>
      <trkpt lat="42.52727" lon="-0.14677">
        <ele>1220.1</ele>
        <time>2017-08-13T08:33:16Z</time>
      </trkpt>
      <trkpt lat="42.52727" lon="-0.14673">
        <ele>1220.4</ele>
        <time>2017-08-13T08:33:18Z</time>
      </trkpt>
      <trkpt lat="42.52725" lon="-0.14669">
        <ele>1220.7</ele>
        <time>2017-08-13T08:33:21Z</time>
      </trkpt>
      <trkpt lat="42.52724" lon="-0.14664">
        <ele>1221</ele>
        <time>2017-08-13T08:33:24Z</time>
      </trkpt>
      <trkpt lat="42.52719" lon="-0.14662">
        <ele>1221.8</ele>
        <time>2017-08-13T08:33:26Z</time>
      </trkpt>
      <trkpt lat="42.52716" lon="-0.14661">
        <ele>1222.5</ele>
        <time>2017-08-13T08:33:28Z</time>
      </trkpt>
      <trkpt lat="42.52714" lon="-0.14657">
        <ele>1222.8</ele>
        <time>2017-08-13T08:33:30Z</time>
      </trkpt>
      <trkpt lat="42.52712" lon="-0.14653">
        <ele>1223</ele>
        <time>2017-08-13T08:33:32Z</time>
      </trkpt>
      <trkpt lat="42.52709" lon="-0.1465">
        <ele>1223.2</ele>
        <time>2017-08-13T08:33:34Z</time>
      </trkpt>
      <trkpt lat="42.52708" lon="-0.14646">
        <ele>1223.4</ele>
        <time>2017-08-13T08:33:36Z</time>
      </trkpt>
      <trkpt lat="42.52707" lon="-0.14643">
        <ele>1223.6</ele>
        <time>2017-08-13T08:33:38Z</time>
      </trkpt>
      <trkpt lat="42.52706" lon="-0.14638">
        <ele>1223.7</ele>
        <time>2017-08-13T08:33:40Z</time>
      </trkpt>
      <trkpt lat="42.52706" lon="-0.14633">
        <ele>1223.6</ele>
        <time>2017-08-13T08:33:42Z</time>
      </trkpt>
      <trkpt lat="42.52705" lon="-0.14629">
        <ele>1223.4</ele>
        <time>2017-08-13T08:33:44Z</time>
      </trkpt>
      <trkpt lat="42.52704" lon="-0.14625">
        <ele>1223.3</ele>
        <time>2017-08-13T08:33:46Z</time>
      </trkpt>
      <trkpt lat="42.52702" lon="-0.14621">
        <ele>1223</ele>
        <time>2017-08-13T08:33:48Z</time>
      </trkpt>
      <trkpt lat="42.527" lon="-0.14616">
        <ele>1222.7</ele>
        <time>2017-08-13T08:33:51Z</time>
      </trkpt>
      <trkpt lat="42.52699" lon="-0.14613">
        <ele>1222.6</ele>
        <time>2017-08-13T08:33:53Z</time>
      </trkpt>
      <trkpt lat="42.52697" lon="-0.14609">
        <ele>1222.6</ele>
        <time>2017-08-13T08:33:55Z</time>
      </trkpt>
      <trkpt lat="42.52696" lon="-0.14605">
        <ele>1222.6</ele>
        <time>2017-08-13T08:33:57Z</time>
      </trkpt>
      <trkpt lat="42.52694" lon="-0.14602">
        <ele>1222.6</ele>
        <time>2017-08-13T08:33:59Z</time>
      </trkpt>
      <trkpt lat="42.52692" lon="-0.146">
        <ele>1222.8</ele>
        <time>2017-08-13T08:34:01Z</time>
      </trkpt>
      <trkpt lat="42.52689" lon="-0.14599">
        <ele>1223.5</ele>
        <time>2017-08-13T08:34:04Z</time>
      </trkpt>
      <trkpt lat="42.52685" lon="-0.14596">
        <ele>1224.3</ele>
        <time>2017-08-13T08:34:07Z</time>
      </trkpt>
      <trkpt lat="42.52682" lon="-0.14595">
        <ele>1225</ele>
        <time>2017-08-13T08:34:10Z</time>
      </trkpt>
      <trkpt lat="42.52678" lon="-0.14596">
        <ele>1225.8</ele>
        <time>2017-08-13T08:34:13Z</time>
      </trkpt>
      <trkpt lat="42.52674" lon="-0.14597">
        <ele>1226.8</ele>
        <time>2017-08-13T08:34:16Z</time>
      </trkpt>
      <trkpt lat="42.52671" lon="-0.14599">
        <ele>1228.7</ele>
        <time>2017-08-13T08:34:19Z</time>
      </trkpt>
      <trkpt lat="42.52669" lon="-0.14602">
        <ele>1229.7</ele>
        <time>2017-08-13T08:34:22Z</time>
      </trkpt>
      <trkpt lat="42.52667" lon="-0.14605">
        <ele>1230.6</ele>
        <time>2017-08-13T08:34:25Z</time>
      </trkpt>
      <trkpt lat="42.52664" lon="-0.14607">
        <ele>1231.7</ele>
        <time>2017-08-13T08:34:28Z</time>
      </trkpt>
      <trkpt lat="42.52663" lon="-0.14611">
        <ele>1233.2</ele>
        <time>2017-08-13T08:34:31Z</time>
      </trkpt>
      <trkpt lat="42.52662" lon="-0.14617">
        <ele>1234.7</ele>
        <time>2017-08-13T08:34:34Z</time>
      </trkpt>
      <trkpt lat="42.52662" lon="-0.14621">
        <ele>1235.7</ele>
        <time>2017-08-13T08:34:37Z</time>
      </trkpt>
      <trkpt lat="42.52663" lon="-0.14625">
        <ele>1237.1</ele>
        <time>2017-08-13T08:34:40Z</time>
      </trkpt>
      <trkpt lat="42.52665" lon="-0.14629">
        <ele>1238</ele>
        <time>2017-08-13T08:34:43Z</time>
      </trkpt>
      <trkpt lat="42.52667" lon="-0.14632">
        <ele>1238.6</ele>
        <time>2017-08-13T08:34:46Z</time>
      </trkpt>
      <trkpt lat="42.5267" lon="-0.14636">
        <ele>1239.3</ele>
        <time>2017-08-13T08:34:49Z</time>
      </trkpt>
      <trkpt lat="42.52672" lon="-0.14639">
        <ele>1240</ele>
        <time>2017-08-13T08:34:51Z</time>
      </trkpt>
      <trkpt lat="42.52674" lon="-0.14643">
        <ele>1240.4</ele>
        <time>2017-08-13T08:34:54Z</time>
      </trkpt>
      <trkpt lat="42.52676" lon="-0.14647">
        <ele>1240.3</ele>
        <time>2017-08-13T08:34:57Z</time>
      </trkpt>
      <trkpt lat="42.52678" lon="-0.14651">
        <ele>1240.3</ele>
        <time>2017-08-13T08:35:00Z</time>
      </trkpt>
      <trkpt lat="42.5268" lon="-0.14653">
        <ele>1240.3</ele>
        <time>2017-08-13T08:35:02Z</time>
      </trkpt>
      <trkpt lat="42.52682" lon="-0.14656">
        <ele>1240.3</ele>
        <time>2017-08-13T08:35:04Z</time>
      </trkpt>
      <trkpt lat="42.52682" lon="-0.1466">
        <ele>1240.4</ele>
        <time>2017-08-13T08:35:06Z</time>
      </trkpt>
      <trkpt lat="42.52683" lon="-0.14664">
        <ele>1240.8</ele>
        <time>2017-08-13T08:35:08Z</time>
      </trkpt>
      <trkpt lat="42.52684" lon="-0.14668">
        <ele>1241</ele>
        <time>2017-08-13T08:35:10Z</time>
      </trkpt>
      <trkpt lat="42.52685" lon="-0.14671">
        <ele>1241.1</ele>
        <time>2017-08-13T08:35:12Z</time>
      </trkpt>
      <trkpt lat="42.52685" lon="-0.14677">
        <ele>1241.4</ele>
        <time>2017-08-13T08:35:15Z</time>
      </trkpt>
      <trkpt lat="42.52687" lon="-0.14682">
        <ele>1242</ele>
        <time>2017-08-13T08:35:18Z</time>
      </trkpt>
      <trkpt lat="42.52688" lon="-0.14685">
        <ele>1242.3</ele>
        <time>2017-08-13T08:35:20Z</time>
      </trkpt>
      <trkpt lat="42.52689" lon="-0.14689">
        <ele>1242.4</ele>
        <time>2017-08-13T08:35:22Z</time>
      </trkpt>
      <trkpt lat="42.5269" lon="-0.14692">
        <ele>1242.5</ele>
        <time>2017-08-13T08:35:24Z</time>
      </trkpt>
      <trkpt lat="42.52691" lon="-0.14696">
        <ele>1242.5</ele>
        <time>2017-08-13T08:35:26Z</time>
      </trkpt>
      <trkpt lat="42.52693" lon="-0.147">
        <ele>1242.6</ele>
        <time>2017-08-13T08:35:29Z</time>
      </trkpt>
      <trkpt lat="42.52694" lon="-0.14705">
        <ele>1242.7</ele>
        <time>2017-08-13T08:35:32Z</time>
      </trkpt>
      <trkpt lat="42.52695" lon="-0.1471">
        <ele>1242.9</ele>
        <time>2017-08-13T08:35:35Z</time>
      </trkpt>
      <trkpt lat="42.52696" lon="-0.14715">
        <ele>1243.3</ele>
        <time>2017-08-13T08:35:38Z</time>
      </trkpt>
      <trkpt lat="42.52696" lon="-0.14719">
        <ele>1243.6</ele>
        <time>2017-08-13T08:35:40Z</time>
      </trkpt>
      <trkpt lat="42.52696" lon="-0.14724">
        <ele>1243.8</ele>
        <time>2017-08-13T08:35:43Z</time>
      </trkpt>
      <trkpt lat="42.52696" lon="-0.14729">
        <ele>1244.1</ele>
        <time>2017-08-13T08:35:46Z</time>
      </trkpt>
      <trkpt lat="42.52696" lon="-0.14735">
        <ele>1244.7</ele>
        <time>2017-08-13T08:35:49Z</time>
      </trkpt>
      <trkpt lat="42.52696" lon="-0.1474">
        <ele>1245.4</ele>
        <time>2017-08-13T08:35:52Z</time>
      </trkpt>
      <trkpt lat="42.52695" lon="-0.14745">
        <ele>1245.9</ele>
        <time>2017-08-13T08:35:55Z</time>
      </trkpt>
      <trkpt lat="42.52694" lon="-0.1475">
        <ele>1246.5</ele>
        <time>2017-08-13T08:35:58Z</time>
      </trkpt>
      <trkpt lat="42.52693" lon="-0.14755">
        <ele>1247.3</ele>
        <time>2017-08-13T08:36:01Z</time>
      </trkpt>
      <trkpt lat="42.52692" lon="-0.1476">
        <ele>1248.2</ele>
        <time>2017-08-13T08:36:04Z</time>
      </trkpt>
      <trkpt lat="42.52691" lon="-0.14765">
        <ele>1248.5</ele>
        <time>2017-08-13T08:36:07Z</time>
      </trkpt>
      <trkpt lat="42.52691" lon="-0.14769">
        <ele>1248.9</ele>
        <time>2017-08-13T08:36:09Z</time>
      </trkpt>
      <trkpt lat="42.52691" lon="-0.14773">
        <ele>1249.5</ele>
        <time>2017-08-13T08:36:11Z</time>
      </trkpt>
      <trkpt lat="42.52691" lon="-0.14778">
        <ele>1250.2</ele>
        <time>2017-08-13T08:36:14Z</time>
      </trkpt>
      <trkpt lat="42.52691" lon="-0.14782">
        <ele>1250.5</ele>
        <time>2017-08-13T08:36:16Z</time>
      </trkpt>
      <trkpt lat="42.52691" lon="-0.14786">
        <ele>1250.9</ele>
        <time>2017-08-13T08:36:18Z</time>
      </trkpt>
      <trkpt lat="42.52692" lon="-0.1479">
        <ele>1251.6</ele>
        <time>2017-08-13T08:36:20Z</time>
      </trkpt>
      <trkpt lat="42.52692" lon="-0.14793">
        <ele>1252.3</ele>
        <time>2017-08-13T08:36:22Z</time>
      </trkpt>
      <trkpt lat="42.52692" lon="-0.14797">
        <ele>1252.9</ele>
        <time>2017-08-13T08:36:24Z</time>
      </trkpt>
      <trkpt lat="42.52691" lon="-0.14801">
        <ele>1253.2</ele>
        <time>2017-08-13T08:36:26Z</time>
      </trkpt>
      <trkpt lat="42.5269" lon="-0.14805">
        <ele>1253.7</ele>
        <time>2017-08-13T08:36:28Z</time>
      </trkpt>
      <trkpt lat="42.52689" lon="-0.1481">
        <ele>1254.5</ele>
        <time>2017-08-13T08:36:31Z</time>
      </trkpt>
      <trkpt lat="42.52689" lon="-0.14815">
        <ele>1255.5</ele>
        <time>2017-08-13T08:36:34Z</time>
      </trkpt>
      <trkpt lat="42.52688" lon="-0.1482">
        <ele>1256</ele>
        <time>2017-08-13T08:36:37Z</time>
      </trkpt>
      <trkpt lat="42.52688" lon="-0.14825">
        <ele>1256.5</ele>
        <time>2017-08-13T08:36:40Z</time>
      </trkpt>
      <trkpt lat="42.52688" lon="-0.1483">
        <ele>1256.9</ele>
        <time>2017-08-13T08:36:43Z</time>
      </trkpt>
      <trkpt lat="42.52687" lon="-0.14833">
        <ele>1257.6</ele>
        <time>2017-08-13T08:36:45Z</time>
      </trkpt>
      <trkpt lat="42.52687" lon="-0.14837">
        <ele>1258.4</ele>
        <time>2017-08-13T08:36:47Z</time>
      </trkpt>
      <trkpt lat="42.52686" lon="-0.14842">
        <ele>1259.2</ele>
        <time>2017-08-13T08:36:50Z</time>
      </trkpt>
      <trkpt lat="42.52685" lon="-0.14847">
        <ele>1259.9</ele>
        <time>2017-08-13T08:36:53Z</time>
      </trkpt>
      <trkpt lat="42.52684" lon="-0.14851">
        <ele>1260.3</ele>
        <time>2017-08-13T08:36:55Z</time>
      </trkpt>
      <trkpt lat="42.52683" lon="-0.14856">
        <ele>1261</ele>
        <time>2017-08-13T08:36:58Z</time>
      </trkpt>
      <trkpt lat="42.52683" lon="-0.14861">
        <ele>1261.7</ele>
        <time>2017-08-13T08:37:01Z</time>
      </trkpt>
      <trkpt lat="42.52681" lon="-0.14866">
        <ele>1262.8</ele>
        <time>2017-08-13T08:37:04Z</time>
      </trkpt>
      <trkpt lat="42.52681" lon="-0.14871">
        <ele>1263</ele>
        <time>2017-08-13T08:37:07Z</time>
      </trkpt>
      <trkpt lat="42.52682" lon="-0.14875">
        <ele>1263.2</ele>
        <time>2017-08-13T08:37:10Z</time>
      </trkpt>
      <trkpt lat="42.52682" lon="-0.1488">
        <ele>1263.4</ele>
        <time>2017-08-13T08:37:13Z</time>
      </trkpt>
      <trkpt lat="42.52681" lon="-0.14885">
        <ele>1263.7</ele>
        <time>2017-08-13T08:37:16Z</time>
      </trkpt>
      <trkpt lat="42.5268" lon="-0.1489">
        <ele>1263.9</ele>
        <time>2017-08-13T08:37:19Z</time>
      </trkpt>
      <trkpt lat="42.5268" lon="-0.14895">
        <ele>1264.1</ele>
        <time>2017-08-13T08:37:22Z</time>
      </trkpt>
      <trkpt lat="42.5268" lon="-0.149">
        <ele>1264.4</ele>
        <time>2017-08-13T08:37:25Z</time>
      </trkpt>
      <trkpt lat="42.5268" lon="-0.14905">
        <ele>1264.8</ele>
        <time>2017-08-13T08:37:28Z</time>
      </trkpt>
      <trkpt lat="42.52681" lon="-0.14909">
        <ele>1265.1</ele>
        <time>2017-08-13T08:37:31Z</time>
      </trkpt>
      <trkpt lat="42.5268" lon="-0.14914">
        <ele>1265.4</ele>
        <time>2017-08-13T08:37:34Z</time>
      </trkpt>
      <trkpt lat="42.52681" lon="-0.14918">
        <ele>1265.6</ele>
        <time>2017-08-13T08:37:36Z</time>
      </trkpt>
      <trkpt lat="42.52681" lon="-0.14922">
        <ele>1265.7</ele>
        <time>2017-08-13T08:37:38Z</time>
      </trkpt>
      <trkpt lat="42.52681" lon="-0.14926">
        <ele>1266</ele>
        <time>2017-08-13T08:37:40Z</time>
      </trkpt>
      <trkpt lat="42.52681" lon="-0.14931">
        <ele>1266.1</ele>
        <time>2017-08-13T08:37:43Z</time>
      </trkpt>
      <trkpt lat="42.5268" lon="-0.14937">
        <ele>1266.2</ele>
        <time>2017-08-13T08:37:46Z</time>
      </trkpt>
      <trkpt lat="42.5268" lon="-0.1494">
        <ele>1266.3</ele>
        <time>2017-08-13T08:37:48Z</time>
      </trkpt>
      <trkpt lat="42.52679" lon="-0.14945">
        <ele>1266.9</ele>
        <time>2017-08-13T08:37:51Z</time>
      </trkpt>
      <trkpt lat="42.52679" lon="-0.14949">
        <ele>1267.2</ele>
        <time>2017-08-13T08:37:53Z</time>
      </trkpt>
      <trkpt lat="42.52679" lon="-0.14953">
        <ele>1267.8</ele>
        <time>2017-08-13T08:37:55Z</time>
      </trkpt>
      <trkpt lat="42.52679" lon="-0.14957">
        <ele>1268.4</ele>
        <time>2017-08-13T08:37:57Z</time>
      </trkpt>
      <trkpt lat="42.5268" lon="-0.14961">
        <ele>1269.2</ele>
        <time>2017-08-13T08:37:59Z</time>
      </trkpt>
      <trkpt lat="42.5268" lon="-0.14966">
        <ele>1270.6</ele>
        <time>2017-08-13T08:38:02Z</time>
      </trkpt>
      <trkpt lat="42.52681" lon="-0.14971">
        <ele>1271.8</ele>
        <time>2017-08-13T08:38:05Z</time>
      </trkpt>
      <trkpt lat="42.52682" lon="-0.14976">
        <ele>1272.8</ele>
        <time>2017-08-13T08:38:08Z</time>
      </trkpt>
      <trkpt lat="42.52683" lon="-0.1498">
        <ele>1273.5</ele>
        <time>2017-08-13T08:38:10Z</time>
      </trkpt>
      <trkpt lat="42.52685" lon="-0.14984">
        <ele>1274.1</ele>
        <time>2017-08-13T08:38:13Z</time>
      </trkpt>
      <trkpt lat="42.52687" lon="-0.14988">
        <ele>1274.6</ele>
        <time>2017-08-13T08:38:16Z</time>
      </trkpt>
      <trkpt lat="42.52687" lon="-0.14992">
        <ele>1275.2</ele>
        <time>2017-08-13T08:38:19Z</time>
      </trkpt>
      <trkpt lat="42.52689" lon="-0.14997">
        <ele>1275.9</ele>
        <time>2017-08-13T08:38:22Z</time>
      </trkpt>
      <trkpt lat="42.52689" lon="-0.15002">
        <ele>1276.5</ele>
        <time>2017-08-13T08:38:25Z</time>
      </trkpt>
      <trkpt lat="42.52689" lon="-0.15007">
        <ele>1276.9</ele>
        <time>2017-08-13T08:38:28Z</time>
      </trkpt>
      <trkpt lat="42.52688" lon="-0.15013">
        <ele>1277.5</ele>
        <time>2017-08-13T08:38:31Z</time>
      </trkpt>
      <trkpt lat="42.52688" lon="-0.15016">
        <ele>1278.1</ele>
        <time>2017-08-13T08:38:33Z</time>
      </trkpt>
      <trkpt lat="42.52689" lon="-0.15021">
        <ele>1278.9</ele>
        <time>2017-08-13T08:38:36Z</time>
      </trkpt>
      <trkpt lat="42.5269" lon="-0.15025">
        <ele>1279.4</ele>
        <time>2017-08-13T08:38:39Z</time>
      </trkpt>
      <trkpt lat="42.52689" lon="-0.1503">
        <ele>1280</ele>
        <time>2017-08-13T08:38:42Z</time>
      </trkpt>
      <trkpt lat="42.52689" lon="-0.15034">
        <ele>1280.6</ele>
        <time>2017-08-13T08:38:45Z</time>
      </trkpt>
      <trkpt lat="42.5269" lon="-0.15038">
        <ele>1281.1</ele>
        <time>2017-08-13T08:38:48Z</time>
      </trkpt>
      <trkpt lat="42.52691" lon="-0.15042">
        <ele>1281.6</ele>
        <time>2017-08-13T08:38:51Z</time>
      </trkpt>
      <trkpt lat="42.52691" lon="-0.15047">
        <ele>1282.1</ele>
        <time>2017-08-13T08:38:54Z</time>
      </trkpt>
      <trkpt lat="42.5269" lon="-0.15052">
        <ele>1282.6</ele>
        <time>2017-08-13T08:38:57Z</time>
      </trkpt>
      <trkpt lat="42.52689" lon="-0.15057">
        <ele>1283.2</ele>
        <time>2017-08-13T08:39:00Z</time>
      </trkpt>
      <trkpt lat="42.52688" lon="-0.15061">
        <ele>1283.9</ele>
        <time>2017-08-13T08:39:02Z</time>
      </trkpt>
      <trkpt lat="42.52686" lon="-0.15066">
        <ele>1284.9</ele>
        <time>2017-08-13T08:39:05Z</time>
      </trkpt>
      <trkpt lat="42.52685" lon="-0.1507">
        <ele>1285.8</ele>
        <time>2017-08-13T08:39:08Z</time>
      </trkpt>
      <trkpt lat="42.52684" lon="-0.15074">
        <ele>1286.4</ele>
        <time>2017-08-13T08:39:11Z</time>
      </trkpt>
      <trkpt lat="42.52683" lon="-0.15079">
        <ele>1287.2</ele>
        <time>2017-08-13T08:39:14Z</time>
      </trkpt>
      <trkpt lat="42.52682" lon="-0.15083">
        <ele>1288.4</ele>
        <time>2017-08-13T08:39:17Z</time>
      </trkpt>
      <trkpt lat="42.5268" lon="-0.15087">
        <ele>1289.8</ele>
        <time>2017-08-13T08:39:20Z</time>
      </trkpt>
      <trkpt lat="42.52679" lon="-0.15092">
        <ele>1291.1</ele>
        <time>2017-08-13T08:39:23Z</time>
      </trkpt>
      <trkpt lat="42.52677" lon="-0.15096">
        <ele>1292.3</ele>
        <time>2017-08-13T08:39:26Z</time>
      </trkpt>
      <trkpt lat="42.52675" lon="-0.151">
        <ele>1293.4</ele>
        <time>2017-08-13T08:39:29Z</time>
      </trkpt>
      <trkpt lat="42.52674" lon="-0.15104">
        <ele>1294.6</ele>
        <time>2017-08-13T08:39:32Z</time>
      </trkpt>
      <trkpt lat="42.52672" lon="-0.15108">
        <ele>1295.7</ele>
        <time>2017-08-13T08:39:35Z</time>
      </trkpt>
      <trkpt lat="42.5267" lon="-0.15112">
        <ele>1296.6</ele>
        <time>2017-08-13T08:39:38Z</time>
      </trkpt>
      <trkpt lat="42.52668" lon="-0.15117">
        <ele>1297.2</ele>
        <time>2017-08-13T08:39:41Z</time>
      </trkpt>
      <trkpt lat="42.52667" lon="-0.15121">
        <ele>1297.7</ele>
        <time>2017-08-13T08:39:44Z</time>
      </trkpt>
      <trkpt lat="42.52666" lon="-0.15126">
        <ele>1298.7</ele>
        <time>2017-08-13T08:39:47Z</time>
      </trkpt>
      <trkpt lat="42.52665" lon="-0.1513">
        <ele>1299.9</ele>
        <time>2017-08-13T08:39:50Z</time>
      </trkpt>
      <trkpt lat="42.52663" lon="-0.15135">
        <ele>1301</ele>
        <time>2017-08-13T08:39:53Z</time>
      </trkpt>
      <trkpt lat="42.52661" lon="-0.1514">
        <ele>1302.1</ele>
        <time>2017-08-13T08:39:56Z</time>
      </trkpt>
      <trkpt lat="42.5266" lon="-0.15143">
        <ele>1302.8</ele>
        <time>2017-08-13T08:39:58Z</time>
      </trkpt>
      <trkpt lat="42.52658" lon="-0.15146">
        <ele>1303.2</ele>
        <time>2017-08-13T08:40:00Z</time>
      </trkpt>
      <trkpt lat="42.52657" lon="-0.15149">
        <ele>1303.6</ele>
        <time>2017-08-13T08:40:02Z</time>
      </trkpt>
      <trkpt lat="42.52655" lon="-0.15152">
        <ele>1304</ele>
        <time>2017-08-13T08:40:04Z</time>
      </trkpt>
      <trkpt lat="42.52653" lon="-0.15157">
        <ele>1304.2</ele>
        <time>2017-08-13T08:40:07Z</time>
      </trkpt>
      <trkpt lat="42.5265" lon="-0.1516">
        <ele>1304.4</ele>
        <time>2017-08-13T08:40:10Z</time>
      </trkpt>
      <trkpt lat="42.52647" lon="-0.15163">
        <ele>1304.5</ele>
        <time>2017-08-13T08:40:12Z</time>
      </trkpt>
      <trkpt lat="42.52644" lon="-0.15165">
        <ele>1304.5</ele>
        <time>2017-08-13T08:40:14Z</time>
      </trkpt>
      <trkpt lat="42.52642" lon="-0.15168">
        <ele>1304.6</ele>
        <time>2017-08-13T08:40:16Z</time>
      </trkpt>
      <trkpt lat="42.52639" lon="-0.1517">
        <ele>1304.9</ele>
        <time>2017-08-13T08:40:18Z</time>
      </trkpt>
      <trkpt lat="42.52637" lon="-0.15173">
        <ele>1305.5</ele>
        <time>2017-08-13T08:40:20Z</time>
      </trkpt>
      <trkpt lat="42.52634" lon="-0.15175">
        <ele>1306</ele>
        <time>2017-08-13T08:40:22Z</time>
      </trkpt>
      <trkpt lat="42.52631" lon="-0.15177">
        <ele>1306.7</ele>
        <time>2017-08-13T08:40:24Z</time>
      </trkpt>
      <trkpt lat="42.52629" lon="-0.1518">
        <ele>1307.4</ele>
        <time>2017-08-13T08:40:26Z</time>
      </trkpt>
      <trkpt lat="42.52626" lon="-0.15183">
        <ele>1308.2</ele>
        <time>2017-08-13T08:40:28Z</time>
      </trkpt>
      <trkpt lat="42.52623" lon="-0.15186">
        <ele>1309.1</ele>
        <time>2017-08-13T08:40:30Z</time>
      </trkpt>
      <trkpt lat="42.52621" lon="-0.15189">
        <ele>1309.7</ele>
        <time>2017-08-13T08:40:32Z</time>
      </trkpt>
      <trkpt lat="42.5262" lon="-0.15193">
        <ele>1310.3</ele>
        <time>2017-08-13T08:40:34Z</time>
      </trkpt>
      <trkpt lat="42.52618" lon="-0.15196">
        <ele>1310.8</ele>
        <time>2017-08-13T08:40:36Z</time>
      </trkpt>
      <trkpt lat="42.52616" lon="-0.15199">
        <ele>1311.3</ele>
        <time>2017-08-13T08:40:38Z</time>
      </trkpt>
      <trkpt lat="42.52615" lon="-0.15202">
        <ele>1311.7</ele>
        <time>2017-08-13T08:40:40Z</time>
      </trkpt>
      <trkpt lat="42.52612" lon="-0.15206">
        <ele>1312</ele>
        <time>2017-08-13T08:40:43Z</time>
      </trkpt>
      <trkpt lat="42.5261" lon="-0.1521">
        <ele>1312.4</ele>
        <time>2017-08-13T08:40:46Z</time>
      </trkpt>
      <trkpt lat="42.52608" lon="-0.15213">
        <ele>1313.2</ele>
        <time>2017-08-13T08:40:48Z</time>
      </trkpt>
      <trkpt lat="42.52606" lon="-0.15215">
        <ele>1313.9</ele>
        <time>2017-08-13T08:40:50Z</time>
      </trkpt>
      <trkpt lat="42.52603" lon="-0.15217">
        <ele>1314.5</ele>
        <time>2017-08-13T08:40:52Z</time>
      </trkpt>
      <trkpt lat="42.526" lon="-0.15219">
        <ele>1314.9</ele>
        <time>2017-08-13T08:40:54Z</time>
      </trkpt>
      <trkpt lat="42.52598" lon="-0.15223">
        <ele>1315.4</ele>
        <time>2017-08-13T08:40:57Z</time>
      </trkpt>
      <trkpt lat="42.52597" lon="-0.15228">
        <ele>1316.1</ele>
        <time>2017-08-13T08:41:00Z</time>
      </trkpt>
      <trkpt lat="42.52596" lon="-0.15233">
        <ele>1316.7</ele>
        <time>2017-08-13T08:41:03Z</time>
      </trkpt>
      <trkpt lat="42.52594" lon="-0.15238">
        <ele>1316.7</ele>
        <time>2017-08-13T08:41:06Z</time>
      </trkpt>
      <trkpt lat="42.52592" lon="-0.15242">
        <ele>1316.7</ele>
        <time>2017-08-13T08:41:09Z</time>
      </trkpt>
      <trkpt lat="42.52588" lon="-0.15245">
        <ele>1316.7</ele>
        <time>2017-08-13T08:41:12Z</time>
      </trkpt>
      <trkpt lat="42.52586" lon="-0.15248">
        <ele>1316.8</ele>
        <time>2017-08-13T08:41:15Z</time>
      </trkpt>
      <trkpt lat="42.52584" lon="-0.15252">
        <ele>1316.5</ele>
        <time>2017-08-13T08:41:18Z</time>
      </trkpt>
      <trkpt lat="42.52581" lon="-0.15256">
        <ele>1316.3</ele>
        <time>2017-08-13T08:41:21Z</time>
      </trkpt>
      <trkpt lat="42.52579" lon="-0.1526">
        <ele>1316.1</ele>
        <time>2017-08-13T08:41:24Z</time>
      </trkpt>
      <trkpt lat="42.52577" lon="-0.15264">
        <ele>1316</ele>
        <time>2017-08-13T08:41:27Z</time>
      </trkpt>
      <trkpt lat="42.52575" lon="-0.15268">
        <ele>1316.5</ele>
        <time>2017-08-13T08:41:30Z</time>
      </trkpt>
      <trkpt lat="42.52573" lon="-0.15271">
        <ele>1316.9</ele>
        <time>2017-08-13T08:41:32Z</time>
      </trkpt>
      <trkpt lat="42.52571" lon="-0.15275">
        <ele>1316.7</ele>
        <time>2017-08-13T08:41:35Z</time>
      </trkpt>
      <trkpt lat="42.5257" lon="-0.15279">
        <ele>1316.6</ele>
        <time>2017-08-13T08:41:37Z</time>
      </trkpt>
      <trkpt lat="42.52567" lon="-0.15281">
        <ele>1316.8</ele>
        <time>2017-08-13T08:41:39Z</time>
      </trkpt>
      <trkpt lat="42.52564" lon="-0.15284">
        <ele>1317</ele>
        <time>2017-08-13T08:41:41Z</time>
      </trkpt>
      <trkpt lat="42.52562" lon="-0.15286">
        <ele>1317.3</ele>
        <time>2017-08-13T08:41:43Z</time>
      </trkpt>
      <trkpt lat="42.5256" lon="-0.15289">
        <ele>1317.7</ele>
        <time>2017-08-13T08:41:45Z</time>
      </trkpt>
      <trkpt lat="42.52558" lon="-0.15292">
        <ele>1318</ele>
        <time>2017-08-13T08:41:47Z</time>
      </trkpt>
      <trkpt lat="42.52556" lon="-0.15295">
        <ele>1318.3</ele>
        <time>2017-08-13T08:41:49Z</time>
      </trkpt>
      <trkpt lat="42.52554" lon="-0.153">
        <ele>1318.7</ele>
        <time>2017-08-13T08:41:52Z</time>
      </trkpt>
      <trkpt lat="42.52551" lon="-0.15304">
        <ele>1319.4</ele>
        <time>2017-08-13T08:41:55Z</time>
      </trkpt>
      <trkpt lat="42.52548" lon="-0.15307">
        <ele>1320.2</ele>
        <time>2017-08-13T08:41:57Z</time>
      </trkpt>
      <trkpt lat="42.52546" lon="-0.15312">
        <ele>1320.9</ele>
        <time>2017-08-13T08:41:59Z</time>
      </trkpt>
      <trkpt lat="42.52545" lon="-0.15316">
        <ele>1321.5</ele>
        <time>2017-08-13T08:42:01Z</time>
      </trkpt>
      <trkpt lat="42.52544" lon="-0.15319">
        <ele>1322</ele>
        <time>2017-08-13T08:42:03Z</time>
      </trkpt>
      <trkpt lat="42.52542" lon="-0.15324">
        <ele>1322.5</ele>
        <time>2017-08-13T08:42:06Z</time>
      </trkpt>
      <trkpt lat="42.52539" lon="-0.15327">
        <ele>1322.9</ele>
        <time>2017-08-13T08:42:09Z</time>
      </trkpt>
      <trkpt lat="42.52537" lon="-0.15329">
        <ele>1323</ele>
        <time>2017-08-13T08:42:11Z</time>
      </trkpt>
      <trkpt lat="42.52534" lon="-0.1533">
        <ele>1323.1</ele>
        <time>2017-08-13T08:42:13Z</time>
      </trkpt>
      <trkpt lat="42.52531" lon="-0.1533">
        <ele>1322.9</ele>
        <time>2017-08-13T08:42:15Z</time>
      </trkpt>
      <trkpt lat="42.52527" lon="-0.15332">
        <ele>1322.5</ele>
        <time>2017-08-13T08:42:18Z</time>
      </trkpt>
      <trkpt lat="42.52524" lon="-0.15332">
        <ele>1322.3</ele>
        <time>2017-08-13T08:42:21Z</time>
      </trkpt>
      <trkpt lat="42.52521" lon="-0.15331">
        <ele>1322.2</ele>
        <time>2017-08-13T08:42:23Z</time>
      </trkpt>
      <trkpt lat="42.52518" lon="-0.15331">
        <ele>1322.2</ele>
        <time>2017-08-13T08:42:26Z</time>
      </trkpt>
      <trkpt lat="42.52515" lon="-0.15332">
        <ele>1322</ele>
        <time>2017-08-13T08:42:28Z</time>
      </trkpt>
      <trkpt lat="42.52512" lon="-0.15332">
        <ele>1321.9</ele>
        <time>2017-08-13T08:42:30Z</time>
      </trkpt>
      <trkpt lat="42.52509" lon="-0.15332">
        <ele>1321.7</ele>
        <time>2017-08-13T08:42:32Z</time>
      </trkpt>
      <trkpt lat="42.52506" lon="-0.15333">
        <ele>1322.1</ele>
        <time>2017-08-13T08:42:34Z</time>
      </trkpt>
      <trkpt lat="42.52501" lon="-0.15333">
        <ele>1322.9</ele>
        <time>2017-08-13T08:42:36Z</time>
      </trkpt>
      <trkpt lat="42.52497" lon="-0.15334">
        <ele>1323.5</ele>
        <time>2017-08-13T08:42:38Z</time>
      </trkpt>
      <trkpt lat="42.52493" lon="-0.15334">
        <ele>1324.2</ele>
        <time>2017-08-13T08:42:40Z</time>
      </trkpt>
      <trkpt lat="42.52489" lon="-0.15335">
        <ele>1325</ele>
        <time>2017-08-13T08:42:42Z</time>
      </trkpt>
      <trkpt lat="42.52484" lon="-0.15335">
        <ele>1325.5</ele>
        <time>2017-08-13T08:42:44Z</time>
      </trkpt>
      <trkpt lat="42.5248" lon="-0.15336">
        <ele>1325.8</ele>
        <time>2017-08-13T08:42:46Z</time>
      </trkpt>
      <trkpt lat="42.52476" lon="-0.15337">
        <ele>1326.1</ele>
        <time>2017-08-13T08:42:48Z</time>
      </trkpt>
      <trkpt lat="42.52472" lon="-0.15338">
        <ele>1326.4</ele>
        <time>2017-08-13T08:42:50Z</time>
      </trkpt>
      <trkpt lat="42.52467" lon="-0.15337">
        <ele>1326.7</ele>
        <time>2017-08-13T08:42:52Z</time>
      </trkpt>
      <trkpt lat="42.52462" lon="-0.15336">
        <ele>1327.3</ele>
        <time>2017-08-13T08:42:54Z</time>
      </trkpt>
      <trkpt lat="42.52459" lon="-0.15336">
        <ele>1327.6</ele>
        <time>2017-08-13T08:42:55Z</time>
      </trkpt>
      <trkpt lat="42.52457" lon="-0.15336">
        <ele>1327.9</ele>
        <time>2017-08-13T08:42:56Z</time>
      </trkpt>
      <trkpt lat="42.52451" lon="-0.15336">
        <ele>1328.4</ele>
        <time>2017-08-13T08:42:58Z</time>
      </trkpt>
      <trkpt lat="42.52448" lon="-0.15337">
        <ele>1328.6</ele>
        <time>2017-08-13T08:42:59Z</time>
      </trkpt>
      <trkpt lat="42.52445" lon="-0.15338">
        <ele>1329</ele>
        <time>2017-08-13T08:43:00Z</time>
      </trkpt>
      <trkpt lat="42.52442" lon="-0.1534">
        <ele>1329.5</ele>
        <time>2017-08-13T08:43:01Z</time>
      </trkpt>
      <trkpt lat="42.52439" lon="-0.15342">
        <ele>1329.7</ele>
        <time>2017-08-13T08:43:02Z</time>
      </trkpt>
      <trkpt lat="42.52437" lon="-0.15345">
        <ele>1329.8</ele>
        <time>2017-08-13T08:43:03Z</time>
      </trkpt>
      <trkpt lat="42.52435" lon="-0.15349">
        <ele>1330.1</ele>
        <time>2017-08-13T08:43:04Z</time>
      </trkpt>
      <trkpt lat="42.52433" lon="-0.15353">
        <ele>1330.8</ele>
        <time>2017-08-13T08:43:05Z</time>
      </trkpt>
      <trkpt lat="42.52432" lon="-0.15358">
        <ele>1331.6</ele>
        <time>2017-08-13T08:43:06Z</time>
      </trkpt>
      <trkpt lat="42.52431" lon="-0.15363">
        <ele>1332.9</ele>
        <time>2017-08-13T08:43:07Z</time>
      </trkpt>
      <trkpt lat="42.52431" lon="-0.15367">
        <ele>1334.1</ele>
        <time>2017-08-13T08:43:08Z</time>
      </trkpt>
      <trkpt lat="42.52431" lon="-0.15371">
        <ele>1334.3</ele>
        <time>2017-08-13T08:43:09Z</time>
      </trkpt>
      <trkpt lat="42.52433" lon="-0.15376">
        <ele>1334.6</ele>
        <time>2017-08-13T08:43:11Z</time>
      </trkpt>
      <trkpt lat="42.52436" lon="-0.15381">
        <ele>1334.8</ele>
        <time>2017-08-13T08:43:13Z</time>
      </trkpt>
      <trkpt lat="42.52438" lon="-0.15384">
        <ele>1335</ele>
        <time>2017-08-13T08:43:15Z</time>
      </trkpt>
      <trkpt lat="42.52441" lon="-0.15387">
        <ele>1334.5</ele>
        <time>2017-08-13T08:43:17Z</time>
      </trkpt>
      <trkpt lat="42.52444" lon="-0.15391">
        <ele>1333.7</ele>
        <time>2017-08-13T08:43:19Z</time>
      </trkpt>
      <trkpt lat="42.52447" lon="-0.15395">
        <ele>1334</ele>
        <time>2017-08-13T08:43:21Z</time>
      </trkpt>
      <trkpt lat="42.52449" lon="-0.15399">
        <ele>1334.2</ele>
        <time>2017-08-13T08:43:23Z</time>
      </trkpt>
      <trkpt lat="42.52451" lon="-0.15402">
        <ele>1334</ele>
        <time>2017-08-13T08:43:25Z</time>
      </trkpt>
      <trkpt lat="42.52453" lon="-0.15406">
        <ele>1333.8</ele>
        <time>2017-08-13T08:43:27Z</time>
      </trkpt>
      <trkpt lat="42.52455" lon="-0.15409">
        <ele>1333.7</ele>
        <time>2017-08-13T08:43:29Z</time>
      </trkpt>
      <trkpt lat="42.52457" lon="-0.15411">
        <ele>1333.8</ele>
        <time>2017-08-13T08:43:31Z</time>
      </trkpt>
      <trkpt lat="42.5246" lon="-0.15415">
        <ele>1333.7</ele>
        <time>2017-08-13T08:43:33Z</time>
      </trkpt>
      <trkpt lat="42.52462" lon="-0.15418">
        <ele>1333.6</ele>
        <time>2017-08-13T08:43:35Z</time>
      </trkpt>
      <trkpt lat="42.52464" lon="-0.15422">
        <ele>1334.5</ele>
        <time>2017-08-13T08:43:37Z</time>
      </trkpt>
      <trkpt lat="42.52466" lon="-0.15425">
        <ele>1335.5</ele>
        <time>2017-08-13T08:43:39Z</time>
      </trkpt>
      <trkpt lat="42.52468" lon="-0.15429">
        <ele>1336.2</ele>
        <time>2017-08-13T08:43:41Z</time>
      </trkpt>
      <trkpt lat="42.5247" lon="-0.15431">
        <ele>1336.7</ele>
        <time>2017-08-13T08:43:43Z</time>
      </trkpt>
      <trkpt lat="42.52473" lon="-0.15434">
        <ele>1337.3</ele>
        <time>2017-08-13T08:43:46Z</time>
      </trkpt>
      <trkpt lat="42.52476" lon="-0.15438">
        <ele>1338.2</ele>
        <time>2017-08-13T08:43:49Z</time>
      </trkpt>
      <trkpt lat="42.52478" lon="-0.15441">
        <ele>1339</ele>
        <time>2017-08-13T08:43:51Z</time>
      </trkpt>
      <trkpt lat="42.52479" lon="-0.15445">
        <ele>1339.8</ele>
        <time>2017-08-13T08:43:53Z</time>
      </trkpt>
      <trkpt lat="42.52482" lon="-0.1545">
        <ele>1340.8</ele>
        <time>2017-08-13T08:43:56Z</time>
      </trkpt>
      <trkpt lat="42.52484" lon="-0.15453">
        <ele>1341.5</ele>
        <time>2017-08-13T08:43:58Z</time>
      </trkpt>
      <trkpt lat="42.52485" lon="-0.15458">
        <ele>1342</ele>
        <time>2017-08-13T08:44:01Z</time>
      </trkpt>
      <trkpt lat="42.52484" lon="-0.15463">
        <ele>1342.4</ele>
        <time>2017-08-13T08:44:03Z</time>
      </trkpt>
      <trkpt lat="42.52483" lon="-0.15468">
        <ele>1342.8</ele>
        <time>2017-08-13T08:44:05Z</time>
      </trkpt>
      <trkpt lat="42.52482" lon="-0.15473">
        <ele>1343.2</ele>
        <time>2017-08-13T08:44:07Z</time>
      </trkpt>
      <trkpt lat="42.52481" lon="-0.15477">
        <ele>1343.6</ele>
        <time>2017-08-13T08:44:09Z</time>
      </trkpt>
      <trkpt lat="42.5248" lon="-0.1548">
        <ele>1343.8</ele>
        <time>2017-08-13T08:44:11Z</time>
      </trkpt>
      <trkpt lat="42.52478" lon="-0.15484">
        <ele>1343.9</ele>
        <time>2017-08-13T08:44:13Z</time>
      </trkpt>
      <trkpt lat="42.52477" lon="-0.15488">
        <ele>1344.3</ele>
        <time>2017-08-13T08:44:15Z</time>
      </trkpt>
      <trkpt lat="42.52476" lon="-0.15492">
        <ele>1344.8</ele>
        <time>2017-08-13T08:44:17Z</time>
      </trkpt>
      <trkpt lat="42.52474" lon="-0.15495">
        <ele>1345.3</ele>
        <time>2017-08-13T08:44:19Z</time>
      </trkpt>
      <trkpt lat="42.52473" lon="-0.15498">
        <ele>1345.6</ele>
        <time>2017-08-13T08:44:21Z</time>
      </trkpt>
      <trkpt lat="42.52472" lon="-0.15503">
        <ele>1345.9</ele>
        <time>2017-08-13T08:44:24Z</time>
      </trkpt>
      <trkpt lat="42.5247" lon="-0.15506">
        <ele>1346.1</ele>
        <time>2017-08-13T08:44:26Z</time>
      </trkpt>
      <trkpt lat="42.52469" lon="-0.15509">
        <ele>1346.5</ele>
        <time>2017-08-13T08:44:28Z</time>
      </trkpt>
      <trkpt lat="42.52467" lon="-0.15513">
        <ele>1347</ele>
        <time>2017-08-13T08:44:30Z</time>
      </trkpt>
      <trkpt lat="42.52465" lon="-0.15518">
        <ele>1347.6</ele>
        <time>2017-08-13T08:44:33Z</time>
      </trkpt>
      <trkpt lat="42.52464" lon="-0.15522">
        <ele>1348</ele>
        <time>2017-08-13T08:44:36Z</time>
      </trkpt>
      <trkpt lat="42.52463" lon="-0.15527">
        <ele>1348.3</ele>
        <time>2017-08-13T08:44:39Z</time>
      </trkpt>
      <trkpt lat="42.52461" lon="-0.15531">
        <ele>1348.7</ele>
        <time>2017-08-13T08:44:42Z</time>
      </trkpt>
      <trkpt lat="42.52459" lon="-0.15534">
        <ele>1349</ele>
        <time>2017-08-13T08:44:44Z</time>
      </trkpt>
      <trkpt lat="42.52457" lon="-0.15537">
        <ele>1349.4</ele>
        <time>2017-08-13T08:44:46Z</time>
      </trkpt>
      <trkpt lat="42.52456" lon="-0.15541">
        <ele>1349.8</ele>
        <time>2017-08-13T08:44:48Z</time>
      </trkpt>
      <trkpt lat="42.52454" lon="-0.15544">
        <ele>1350.2</ele>
        <time>2017-08-13T08:44:50Z</time>
      </trkpt>
      <trkpt lat="42.52452" lon="-0.15547">
        <ele>1350.5</ele>
        <time>2017-08-13T08:44:52Z</time>
      </trkpt>
      <trkpt lat="42.5245" lon="-0.1555">
        <ele>1350.7</ele>
        <time>2017-08-13T08:44:54Z</time>
      </trkpt>
      <trkpt lat="42.52449" lon="-0.15554">
        <ele>1351</ele>
        <time>2017-08-13T08:44:56Z</time>
      </trkpt>
      <trkpt lat="42.52447" lon="-0.15558">
        <ele>1351.2</ele>
        <time>2017-08-13T08:44:58Z</time>
      </trkpt>
      <trkpt lat="42.52445" lon="-0.15561">
        <ele>1351.3</ele>
        <time>2017-08-13T08:45:00Z</time>
      </trkpt>
      <trkpt lat="42.52443" lon="-0.15564">
        <ele>1351.5</ele>
        <time>2017-08-13T08:45:02Z</time>
      </trkpt>
      <trkpt lat="42.52441" lon="-0.15567">
        <ele>1351.7</ele>
        <time>2017-08-13T08:45:04Z</time>
      </trkpt>
      <trkpt lat="42.52439" lon="-0.15571">
        <ele>1351.9</ele>
        <time>2017-08-13T08:45:06Z</time>
      </trkpt>
      <trkpt lat="42.52437" lon="-0.15575">
        <ele>1352</ele>
        <time>2017-08-13T08:45:08Z</time>
      </trkpt>
      <trkpt lat="42.52435" lon="-0.15579">
        <ele>1352.4</ele>
        <time>2017-08-13T08:45:10Z</time>
      </trkpt>
      <trkpt lat="42.52434" lon="-0.15583">
        <ele>1352.8</ele>
        <time>2017-08-13T08:45:12Z</time>
      </trkpt>
      <trkpt lat="42.52432" lon="-0.15587">
        <ele>1353.3</ele>
        <time>2017-08-13T08:45:14Z</time>
      </trkpt>
      <trkpt lat="42.5243" lon="-0.15591">
        <ele>1353.9</ele>
        <time>2017-08-13T08:45:16Z</time>
      </trkpt>
      <trkpt lat="42.52428" lon="-0.15594">
        <ele>1354.4</ele>
        <time>2017-08-13T08:45:18Z</time>
      </trkpt>
      <trkpt lat="42.52427" lon="-0.15598">
        <ele>1354.9</ele>
        <time>2017-08-13T08:45:20Z</time>
      </trkpt>
      <trkpt lat="42.52425" lon="-0.15602">
        <ele>1355.3</ele>
        <time>2017-08-13T08:45:22Z</time>
      </trkpt>
      <trkpt lat="42.52423" lon="-0.15606">
        <ele>1355.8</ele>
        <time>2017-08-13T08:45:24Z</time>
      </trkpt>
      <trkpt lat="42.5242" lon="-0.15609">
        <ele>1356.1</ele>
        <time>2017-08-13T08:45:26Z</time>
      </trkpt>
      <trkpt lat="42.52416" lon="-0.15612">
        <ele>1356.3</ele>
        <time>2017-08-13T08:45:28Z</time>
      </trkpt>
      <trkpt lat="42.52412" lon="-0.15614">
        <ele>1356.8</ele>
        <time>2017-08-13T08:45:30Z</time>
      </trkpt>
      <trkpt lat="42.52408" lon="-0.15616">
        <ele>1357.4</ele>
        <time>2017-08-13T08:45:32Z</time>
      </trkpt>
      <trkpt lat="42.52405" lon="-0.15619">
        <ele>1357.6</ele>
        <time>2017-08-13T08:45:34Z</time>
      </trkpt>
      <trkpt lat="42.52401" lon="-0.15622">
        <ele>1357.9</ele>
        <time>2017-08-13T08:45:36Z</time>
      </trkpt>
      <trkpt lat="42.52398" lon="-0.15626">
        <ele>1358.1</ele>
        <time>2017-08-13T08:45:38Z</time>
      </trkpt>
      <trkpt lat="42.52394" lon="-0.15631">
        <ele>1358.2</ele>
        <time>2017-08-13T08:45:40Z</time>
      </trkpt>
      <trkpt lat="42.52391" lon="-0.15637">
        <ele>1357.7</ele>
        <time>2017-08-13T08:45:42Z</time>
      </trkpt>
      <trkpt lat="42.5239" lon="-0.15641">
        <ele>1357.1</ele>
        <time>2017-08-13T08:45:43Z</time>
      </trkpt>
      <trkpt lat="42.52389" lon="-0.15644">
        <ele>1356.5</ele>
        <time>2017-08-13T08:45:44Z</time>
      </trkpt>
      <trkpt lat="42.52388" lon="-0.15648">
        <ele>1355.9</ele>
        <time>2017-08-13T08:45:45Z</time>
      </trkpt>
      <trkpt lat="42.52387" lon="-0.15651">
        <ele>1355.1</ele>
        <time>2017-08-13T08:45:46Z</time>
      </trkpt>
      <trkpt lat="42.52386" lon="-0.15655">
        <ele>1354.5</ele>
        <time>2017-08-13T08:45:47Z</time>
      </trkpt>
      <trkpt lat="42.52385" lon="-0.15663">
        <ele>1354.1</ele>
        <time>2017-08-13T08:45:49Z</time>
      </trkpt>
      <trkpt lat="42.52385" lon="-0.15667">
        <ele>1353.9</ele>
        <time>2017-08-13T08:45:50Z</time>
      </trkpt>
      <trkpt lat="42.52385" lon="-0.15671">
        <ele>1353.7</ele>
        <time>2017-08-13T08:45:51Z</time>
      </trkpt>
      <trkpt lat="42.52385" lon="-0.15676">
        <ele>1354.6</ele>
        <time>2017-08-13T08:45:52Z</time>
      </trkpt>
      <trkpt lat="42.52386" lon="-0.1568">
        <ele>1355.8</ele>
        <time>2017-08-13T08:45:53Z</time>
      </trkpt>
      <trkpt lat="42.52386" lon="-0.15684">
        <ele>1356.5</ele>
        <time>2017-08-13T08:45:54Z</time>
      </trkpt>
      <trkpt lat="42.52387" lon="-0.15688">
        <ele>1356.7</ele>
        <time>2017-08-13T08:45:55Z</time>
      </trkpt>
      <trkpt lat="42.52388" lon="-0.15694">
        <ele>1357.2</ele>
        <time>2017-08-13T08:45:57Z</time>
      </trkpt>
      <trkpt lat="42.52388" lon="-0.15699">
        <ele>1357.7</ele>
        <time>2017-08-13T08:45:59Z</time>
      </trkpt>
      <trkpt lat="42.52386" lon="-0.15703">
        <ele>1358.2</ele>
        <time>2017-08-13T08:46:01Z</time>
      </trkpt>
      <trkpt lat="42.52383" lon="-0.15705">
        <ele>1359.1</ele>
        <time>2017-08-13T08:46:03Z</time>
      </trkpt>
      <trkpt lat="42.5238" lon="-0.15704">
        <ele>1360</ele>
        <time>2017-08-13T08:46:05Z</time>
      </trkpt>
      <trkpt lat="42.52376" lon="-0.15701">
        <ele>1361</ele>
        <time>2017-08-13T08:46:07Z</time>
      </trkpt>
      <trkpt lat="42.52374" lon="-0.15698">
        <ele>1361.6</ele>
        <time>2017-08-13T08:46:09Z</time>
      </trkpt>
      <trkpt lat="42.52372" lon="-0.15694">
        <ele>1362.1</ele>
        <time>2017-08-13T08:46:11Z</time>
      </trkpt>
      <trkpt lat="42.52369" lon="-0.1569">
        <ele>1362.7</ele>
        <time>2017-08-13T08:46:13Z</time>
      </trkpt>
      <trkpt lat="42.52366" lon="-0.15687">
        <ele>1363.1</ele>
        <time>2017-08-13T08:46:15Z</time>
      </trkpt>
      <trkpt lat="42.52364" lon="-0.15684">
        <ele>1363.8</ele>
        <time>2017-08-13T08:46:17Z</time>
      </trkpt>
      <trkpt lat="42.52361" lon="-0.15682">
        <ele>1364.5</ele>
        <time>2017-08-13T08:46:19Z</time>
      </trkpt>
      <trkpt lat="42.52358" lon="-0.15678">
        <ele>1364.9</ele>
        <time>2017-08-13T08:46:21Z</time>
      </trkpt>
      <trkpt lat="42.52355" lon="-0.15675">
        <ele>1365.1</ele>
        <time>2017-08-13T08:46:23Z</time>
      </trkpt>
      <trkpt lat="42.52353" lon="-0.15672">
        <ele>1365.3</ele>
        <time>2017-08-13T08:46:25Z</time>
      </trkpt>
      <trkpt lat="42.52351" lon="-0.15669">
        <ele>1365.9</ele>
        <time>2017-08-13T08:46:27Z</time>
      </trkpt>
      <trkpt lat="42.52349" lon="-0.15667">
        <ele>1366.4</ele>
        <time>2017-08-13T08:46:29Z</time>
      </trkpt>
      <trkpt lat="42.52347" lon="-0.15663">
        <ele>1366.8</ele>
        <time>2017-08-13T08:46:31Z</time>
      </trkpt>
      <trkpt lat="42.52345" lon="-0.15659">
        <ele>1366.9</ele>
        <time>2017-08-13T08:46:33Z</time>
      </trkpt>
      <trkpt lat="42.52344" lon="-0.15654">
        <ele>1366.9</ele>
        <time>2017-08-13T08:46:35Z</time>
      </trkpt>
      <trkpt lat="42.52342" lon="-0.15649">
        <ele>1367.6</ele>
        <time>2017-08-13T08:46:37Z</time>
      </trkpt>
      <trkpt lat="42.5234" lon="-0.15645">
        <ele>1368.2</ele>
        <time>2017-08-13T08:46:39Z</time>
      </trkpt>
      <trkpt lat="42.52338" lon="-0.1564">
        <ele>1368.6</ele>
        <time>2017-08-13T08:46:41Z</time>
      </trkpt>
      <trkpt lat="42.52336" lon="-0.15636">
        <ele>1368.8</ele>
        <time>2017-08-13T08:46:43Z</time>
      </trkpt>
      <trkpt lat="42.52334" lon="-0.15631">
        <ele>1368.7</ele>
        <time>2017-08-13T08:46:45Z</time>
      </trkpt>
      <trkpt lat="42.52333" lon="-0.15627">
        <ele>1368.2</ele>
        <time>2017-08-13T08:46:47Z</time>
      </trkpt>
      <trkpt lat="42.5233" lon="-0.15624">
        <ele>1367.9</ele>
        <time>2017-08-13T08:46:49Z</time>
      </trkpt>
      <trkpt lat="42.52327" lon="-0.15621">
        <ele>1368.1</ele>
        <time>2017-08-13T08:46:51Z</time>
      </trkpt>
      <trkpt lat="42.52325" lon="-0.15616">
        <ele>1368.3</ele>
        <time>2017-08-13T08:46:53Z</time>
      </trkpt>
      <trkpt lat="42.52322" lon="-0.15613">
        <ele>1368.3</ele>
        <time>2017-08-13T08:46:55Z</time>
      </trkpt>
      <trkpt lat="42.5232" lon="-0.15609">
        <ele>1368.3</ele>
        <time>2017-08-13T08:46:57Z</time>
      </trkpt>
      <trkpt lat="42.52318" lon="-0.15606">
        <ele>1368.8</ele>
        <time>2017-08-13T08:46:59Z</time>
      </trkpt>
      <trkpt lat="42.52315" lon="-0.15604">
        <ele>1369.3</ele>
        <time>2017-08-13T08:47:01Z</time>
      </trkpt>
      <trkpt lat="42.52312" lon="-0.15601">
        <ele>1369.6</ele>
        <time>2017-08-13T08:47:03Z</time>
      </trkpt>
      <trkpt lat="42.52309" lon="-0.15599">
        <ele>1369.5</ele>
        <time>2017-08-13T08:47:05Z</time>
      </trkpt>
      <trkpt lat="42.52307" lon="-0.15596">
        <ele>1369.5</ele>
        <time>2017-08-13T08:47:07Z</time>
      </trkpt>
      <trkpt lat="42.52305" lon="-0.15593">
        <ele>1369.5</ele>
        <time>2017-08-13T08:47:09Z</time>
      </trkpt>
      <trkpt lat="42.52303" lon="-0.1559">
        <ele>1369.4</ele>
        <time>2017-08-13T08:47:11Z</time>
      </trkpt>
      <trkpt lat="42.52302" lon="-0.15585">
        <ele>1369.4</ele>
        <time>2017-08-13T08:47:13Z</time>
      </trkpt>
      <trkpt lat="42.523" lon="-0.15581">
        <ele>1369.2</ele>
        <time>2017-08-13T08:47:15Z</time>
      </trkpt>
      <trkpt lat="42.52298" lon="-0.15578">
        <ele>1369.1</ele>
        <time>2017-08-13T08:47:17Z</time>
      </trkpt>
      <trkpt lat="42.52295" lon="-0.15575">
        <ele>1369.2</ele>
        <time>2017-08-13T08:47:19Z</time>
      </trkpt>
      <trkpt lat="42.52293" lon="-0.15571">
        <ele>1369.3</ele>
        <time>2017-08-13T08:47:21Z</time>
      </trkpt>
      <trkpt lat="42.52292" lon="-0.15566">
        <ele>1369.9</ele>
        <time>2017-08-13T08:47:23Z</time>
      </trkpt>
      <trkpt lat="42.52291" lon="-0.1556">
        <ele>1370.9</ele>
        <time>2017-08-13T08:47:25Z</time>
      </trkpt>
      <trkpt lat="42.52289" lon="-0.15556">
        <ele>1371</ele>
        <time>2017-08-13T08:47:27Z</time>
      </trkpt>
      <trkpt lat="42.52288" lon="-0.15551">
        <ele>1371</ele>
        <time>2017-08-13T08:47:29Z</time>
      </trkpt>
      <trkpt lat="42.52287" lon="-0.15545">
        <ele>1371.2</ele>
        <time>2017-08-13T08:47:31Z</time>
      </trkpt>
      <trkpt lat="42.52286" lon="-0.15538">
        <ele>1371.5</ele>
        <time>2017-08-13T08:47:33Z</time>
      </trkpt>
      <trkpt lat="42.52284" lon="-0.15533">
        <ele>1371.7</ele>
        <time>2017-08-13T08:47:35Z</time>
      </trkpt>
      <trkpt lat="42.52283" lon="-0.15528">
        <ele>1371.9</ele>
        <time>2017-08-13T08:47:37Z</time>
      </trkpt>
      <trkpt lat="42.52282" lon="-0.15523">
        <ele>1372.5</ele>
        <time>2017-08-13T08:47:39Z</time>
      </trkpt>
      <trkpt lat="42.52281" lon="-0.15519">
        <ele>1373.1</ele>
        <time>2017-08-13T08:47:41Z</time>
      </trkpt>
      <trkpt lat="42.52279" lon="-0.15516">
        <ele>1373.2</ele>
        <time>2017-08-13T08:47:43Z</time>
      </trkpt>
      <trkpt lat="42.52276" lon="-0.15513">
        <ele>1373.1</ele>
        <time>2017-08-13T08:47:45Z</time>
      </trkpt>
      <trkpt lat="42.52274" lon="-0.1551">
        <ele>1373.1</ele>
        <time>2017-08-13T08:47:47Z</time>
      </trkpt>
      <trkpt lat="42.52272" lon="-0.15504">
        <ele>1373.3</ele>
        <time>2017-08-13T08:47:49Z</time>
      </trkpt>
      <trkpt lat="42.5227" lon="-0.15499">
        <ele>1373.5</ele>
        <time>2017-08-13T08:47:51Z</time>
      </trkpt>
      <trkpt lat="42.52268" lon="-0.15495">
        <ele>1373.3</ele>
        <time>2017-08-13T08:47:53Z</time>
      </trkpt>
      <trkpt lat="42.52264" lon="-0.15491">
        <ele>1373.2</ele>
        <time>2017-08-13T08:47:55Z</time>
      </trkpt>
      <trkpt lat="42.52261" lon="-0.15488">
        <ele>1373.4</ele>
        <time>2017-08-13T08:47:57Z</time>
      </trkpt>
      <trkpt lat="42.52258" lon="-0.15485">
        <ele>1373.8</ele>
        <time>2017-08-13T08:47:59Z</time>
      </trkpt>
      <trkpt lat="42.52255" lon="-0.1548">
        <ele>1374.7</ele>
        <time>2017-08-13T08:48:01Z</time>
      </trkpt>
      <trkpt lat="42.52251" lon="-0.15476">
        <ele>1375.5</ele>
        <time>2017-08-13T08:48:03Z</time>
      </trkpt>
      <trkpt lat="42.52247" lon="-0.15473">
        <ele>1375.7</ele>
        <time>2017-08-13T08:48:05Z</time>
      </trkpt>
      <trkpt lat="42.52244" lon="-0.1547">
        <ele>1375.9</ele>
        <time>2017-08-13T08:48:07Z</time>
      </trkpt>
      <trkpt lat="42.52241" lon="-0.15466">
        <ele>1376.4</ele>
        <time>2017-08-13T08:48:09Z</time>
      </trkpt>
      <trkpt lat="42.52238" lon="-0.15462">
        <ele>1377.2</ele>
        <time>2017-08-13T08:48:11Z</time>
      </trkpt>
      <trkpt lat="42.52233" lon="-0.15458">
        <ele>1379.2</ele>
        <time>2017-08-13T08:48:13Z</time>
      </trkpt>
      <trkpt lat="42.52229" lon="-0.15455">
        <ele>1380.6</ele>
        <time>2017-08-13T08:48:15Z</time>
      </trkpt>
      <trkpt lat="42.52224" lon="-0.15452">
        <ele>1381.6</ele>
        <time>2017-08-13T08:48:17Z</time>
      </trkpt>
      <trkpt lat="42.5222" lon="-0.15448">
        <ele>1382.5</ele>
        <time>2017-08-13T08:48:19Z</time>
      </trkpt>
      <trkpt lat="42.52215" lon="-0.15446">
        <ele>1383.7</ele>
        <time>2017-08-13T08:48:21Z</time>
      </trkpt>
      <trkpt lat="42.52211" lon="-0.15445">
        <ele>1384.3</ele>
        <time>2017-08-13T08:48:23Z</time>
      </trkpt>
      <trkpt lat="42.52207" lon="-0.15444">
        <ele>1384.5</ele>
        <time>2017-08-13T08:48:25Z</time>
      </trkpt>
      <trkpt lat="42.52203" lon="-0.15443">
        <ele>1384.8</ele>
        <time>2017-08-13T08:48:27Z</time>
      </trkpt>
      <trkpt lat="42.52198" lon="-0.15442">
        <ele>1385.2</ele>
        <time>2017-08-13T08:48:29Z</time>
      </trkpt>
      <trkpt lat="42.52194" lon="-0.15439">
        <ele>1385.6</ele>
        <time>2017-08-13T08:48:31Z</time>
      </trkpt>
      <trkpt lat="42.5219" lon="-0.15435">
        <ele>1385.4</ele>
        <time>2017-08-13T08:48:33Z</time>
      </trkpt>
      <trkpt lat="42.52186" lon="-0.15432">
        <ele>1385.5</ele>
        <time>2017-08-13T08:48:35Z</time>
      </trkpt>
      <trkpt lat="42.52183" lon="-0.15429">
        <ele>1386.2</ele>
        <time>2017-08-13T08:48:37Z</time>
      </trkpt>
      <trkpt lat="42.52179" lon="-0.15425">
        <ele>1386.4</ele>
        <time>2017-08-13T08:48:39Z</time>
      </trkpt>
      <trkpt lat="42.52175" lon="-0.1542">
        <ele>1386.1</ele>
        <time>2017-08-13T08:48:41Z</time>
      </trkpt>
      <trkpt lat="42.52172" lon="-0.15415">
        <ele>1386.4</ele>
        <time>2017-08-13T08:48:43Z</time>
      </trkpt>
      <trkpt lat="42.52171" lon="-0.15409">
        <ele>1386.7</ele>
        <time>2017-08-13T08:48:45Z</time>
      </trkpt>
      <trkpt lat="42.52171" lon="-0.15405">
        <ele>1386.7</ele>
        <time>2017-08-13T08:48:46Z</time>
      </trkpt>
      <trkpt lat="42.52171" lon="-0.15401">
        <ele>1386.6</ele>
        <time>2017-08-13T08:48:47Z</time>
      </trkpt>
      <trkpt lat="42.52171" lon="-0.15395">
        <ele>1386.5</ele>
        <time>2017-08-13T08:48:49Z</time>
      </trkpt>
      <trkpt lat="42.52172" lon="-0.15389">
        <ele>1386.1</ele>
        <time>2017-08-13T08:48:51Z</time>
      </trkpt>
      <trkpt lat="42.52172" lon="-0.15384">
        <ele>1385.5</ele>
        <time>2017-08-13T08:48:53Z</time>
      </trkpt>
      <trkpt lat="42.52172" lon="-0.15378">
        <ele>1385.5</ele>
        <time>2017-08-13T08:48:55Z</time>
      </trkpt>
      <trkpt lat="42.52173" lon="-0.15371">
        <ele>1385.4</ele>
        <time>2017-08-13T08:48:57Z</time>
      </trkpt>
      <trkpt lat="42.52175" lon="-0.15366">
        <ele>1385.1</ele>
        <time>2017-08-13T08:48:59Z</time>
      </trkpt>
      <trkpt lat="42.52178" lon="-0.1536">
        <ele>1384.5</ele>
        <time>2017-08-13T08:49:01Z</time>
      </trkpt>
      <trkpt lat="42.52182" lon="-0.15356">
        <ele>1384.3</ele>
        <time>2017-08-13T08:49:03Z</time>
      </trkpt>
      <trkpt lat="42.52187" lon="-0.15354">
        <ele>1384.1</ele>
        <time>2017-08-13T08:49:05Z</time>
      </trkpt>
      <trkpt lat="42.52192" lon="-0.15354">
        <ele>1383.9</ele>
        <time>2017-08-13T08:49:07Z</time>
      </trkpt>
      <trkpt lat="42.52196" lon="-0.15353">
        <ele>1383.9</ele>
        <time>2017-08-13T08:49:09Z</time>
      </trkpt>
      <trkpt lat="42.52201" lon="-0.15351">
        <ele>1384.5</ele>
        <time>2017-08-13T08:49:11Z</time>
      </trkpt>
      <trkpt lat="42.52205" lon="-0.15349">
        <ele>1384.9</ele>
        <time>2017-08-13T08:49:13Z</time>
      </trkpt>
      <trkpt lat="42.52208" lon="-0.15347">
        <ele>1385.1</ele>
        <time>2017-08-13T08:49:15Z</time>
      </trkpt>
      <trkpt lat="42.5221" lon="-0.15343">
        <ele>1385.4</ele>
        <time>2017-08-13T08:49:17Z</time>
      </trkpt>
      <trkpt lat="42.52212" lon="-0.15338">
        <ele>1385.7</ele>
        <time>2017-08-13T08:49:20Z</time>
      </trkpt>
      <trkpt lat="42.52211" lon="-0.15334">
        <ele>1386.1</ele>
        <time>2017-08-13T08:49:25Z</time>
      </trkpt>
      <trkpt lat="42.5221" lon="-0.1533">
        <ele>1386.5</ele>
        <time>2017-08-13T08:49:28Z</time>
      </trkpt>
      <trkpt lat="42.52211" lon="-0.15327">
        <ele>1386.8</ele>
        <time>2017-08-13T08:49:30Z</time>
      </trkpt>
      <trkpt lat="42.5221" lon="-0.15321">
        <ele>1387.2</ele>
        <time>2017-08-13T08:49:33Z</time>
      </trkpt>
      <trkpt lat="42.52209" lon="-0.15317">
        <ele>1387.5</ele>
        <time>2017-08-13T08:49:35Z</time>
      </trkpt>
      <trkpt lat="42.52209" lon="-0.15312">
        <ele>1387.9</ele>
        <time>2017-08-13T08:49:37Z</time>
      </trkpt>
      <trkpt lat="42.5221" lon="-0.15308">
        <ele>1388.3</ele>
        <time>2017-08-13T08:49:39Z</time>
      </trkpt>
      <trkpt lat="42.52209" lon="-0.15304">
        <ele>1389.2</ele>
        <time>2017-08-13T08:49:43Z</time>
      </trkpt>
      <trkpt lat="42.52208" lon="-0.153">
        <ele>1390</ele>
        <time>2017-08-13T08:49:46Z</time>
      </trkpt>
      <trkpt lat="42.52209" lon="-0.15296">
        <ele>1390.8</ele>
        <time>2017-08-13T08:49:48Z</time>
      </trkpt>
      <trkpt lat="42.52208" lon="-0.15291">
        <ele>1391.7</ele>
        <time>2017-08-13T08:49:51Z</time>
      </trkpt>
      <trkpt lat="42.52207" lon="-0.15285">
        <ele>1392.5</ele>
        <time>2017-08-13T08:49:54Z</time>
      </trkpt>
      <trkpt lat="42.52207" lon="-0.15281">
        <ele>1392.9</ele>
        <time>2017-08-13T08:49:56Z</time>
      </trkpt>
      <trkpt lat="42.52207" lon="-0.15277">
        <ele>1393.3</ele>
        <time>2017-08-13T08:49:58Z</time>
      </trkpt>
      <trkpt lat="42.52207" lon="-0.15274">
        <ele>1393.7</ele>
        <time>2017-08-13T08:50:00Z</time>
      </trkpt>
      <trkpt lat="42.52205" lon="-0.15269">
        <ele>1394.2</ele>
        <time>2017-08-13T08:50:03Z</time>
      </trkpt>
      <trkpt lat="42.52205" lon="-0.15265">
        <ele>1394.7</ele>
        <time>2017-08-13T08:50:05Z</time>
      </trkpt>
      <trkpt lat="42.52204" lon="-0.1526">
        <ele>1395.5</ele>
        <time>2017-08-13T08:50:08Z</time>
      </trkpt>
      <trkpt lat="42.52202" lon="-0.15255">
        <ele>1396</ele>
        <time>2017-08-13T08:50:11Z</time>
      </trkpt>
      <trkpt lat="42.52201" lon="-0.15252">
        <ele>1396.4</ele>
        <time>2017-08-13T08:50:13Z</time>
      </trkpt>
      <trkpt lat="42.522" lon="-0.15248">
        <ele>1397</ele>
        <time>2017-08-13T08:50:15Z</time>
      </trkpt>
      <trkpt lat="42.52199" lon="-0.15244">
        <ele>1397.8</ele>
        <time>2017-08-13T08:50:17Z</time>
      </trkpt>
      <trkpt lat="42.52197" lon="-0.1524">
        <ele>1398.6</ele>
        <time>2017-08-13T08:50:19Z</time>
      </trkpt>
      <trkpt lat="42.52196" lon="-0.15236">
        <ele>1399</ele>
        <time>2017-08-13T08:50:21Z</time>
      </trkpt>
      <trkpt lat="42.52194" lon="-0.15233">
        <ele>1399.5</ele>
        <time>2017-08-13T08:50:23Z</time>
      </trkpt>
      <trkpt lat="42.52191" lon="-0.15231">
        <ele>1399.8</ele>
        <time>2017-08-13T08:50:25Z</time>
      </trkpt>
      <trkpt lat="42.52189" lon="-0.15228">
        <ele>1400.1</ele>
        <time>2017-08-13T08:50:27Z</time>
      </trkpt>
      <trkpt lat="42.52187" lon="-0.15224">
        <ele>1400.4</ele>
        <time>2017-08-13T08:50:29Z</time>
      </trkpt>
      <trkpt lat="42.52185" lon="-0.15221">
        <ele>1400.4</ele>
        <time>2017-08-13T08:50:31Z</time>
      </trkpt>
      <trkpt lat="42.52183" lon="-0.15217">
        <ele>1400.4</ele>
        <time>2017-08-13T08:50:33Z</time>
      </trkpt>
      <trkpt lat="42.52182" lon="-0.15214">
        <ele>1400.4</ele>
        <time>2017-08-13T08:50:35Z</time>
      </trkpt>
      <trkpt lat="42.5218" lon="-0.1521">
        <ele>1400.5</ele>
        <time>2017-08-13T08:50:38Z</time>
      </trkpt>
      <trkpt lat="42.52179" lon="-0.15206">
        <ele>1400.6</ele>
        <time>2017-08-13T08:50:40Z</time>
      </trkpt>
      <trkpt lat="42.52178" lon="-0.15202">
        <ele>1400.7</ele>
        <time>2017-08-13T08:50:42Z</time>
      </trkpt>
      <trkpt lat="42.52176" lon="-0.15199">
        <ele>1400.8</ele>
        <time>2017-08-13T08:50:44Z</time>
      </trkpt>
      <trkpt lat="42.52173" lon="-0.15196">
        <ele>1400.8</ele>
        <time>2017-08-13T08:50:46Z</time>
      </trkpt>
      <trkpt lat="42.52171" lon="-0.15193">
        <ele>1400.9</ele>
        <time>2017-08-13T08:50:48Z</time>
      </trkpt>
      <trkpt lat="42.52169" lon="-0.15189">
        <ele>1400.9</ele>
        <time>2017-08-13T08:50:50Z</time>
      </trkpt>
      <trkpt lat="42.52166" lon="-0.15186">
        <ele>1400.9</ele>
        <time>2017-08-13T08:50:52Z</time>
      </trkpt>
      <trkpt lat="42.52163" lon="-0.15182">
        <ele>1400.9</ele>
        <time>2017-08-13T08:50:54Z</time>
      </trkpt>
      <trkpt lat="42.52161" lon="-0.15179">
        <ele>1401.2</ele>
        <time>2017-08-13T08:50:56Z</time>
      </trkpt>
      <trkpt lat="42.52158" lon="-0.15176">
        <ele>1401.5</ele>
        <time>2017-08-13T08:50:58Z</time>
      </trkpt>
      <trkpt lat="42.52156" lon="-0.15173">
        <ele>1401.7</ele>
        <time>2017-08-13T08:51:00Z</time>
      </trkpt>
      <trkpt lat="42.52153" lon="-0.1517">
        <ele>1401.9</ele>
        <time>2017-08-13T08:51:02Z</time>
      </trkpt>
      <trkpt lat="42.52149" lon="-0.15168">
        <ele>1402.2</ele>
        <time>2017-08-13T08:51:05Z</time>
      </trkpt>
      <trkpt lat="42.52146" lon="-0.15167">
        <ele>1402.5</ele>
        <time>2017-08-13T08:51:07Z</time>
      </trkpt>
      <trkpt lat="42.52143" lon="-0.15166">
        <ele>1402.9</ele>
        <time>2017-08-13T08:51:09Z</time>
      </trkpt>
      <trkpt lat="42.52139" lon="-0.15165">
        <ele>1403.4</ele>
        <time>2017-08-13T08:51:11Z</time>
      </trkpt>
      <trkpt lat="42.52135" lon="-0.15163">
        <ele>1403.9</ele>
        <time>2017-08-13T08:51:13Z</time>
      </trkpt>
      <trkpt lat="42.52131" lon="-0.15161">
        <ele>1404.2</ele>
        <time>2017-08-13T08:51:15Z</time>
      </trkpt>
      <trkpt lat="42.52127" lon="-0.15159">
        <ele>1404.5</ele>
        <time>2017-08-13T08:51:17Z</time>
      </trkpt>
      <trkpt lat="42.52123" lon="-0.15157">
        <ele>1404.9</ele>
        <time>2017-08-13T08:51:19Z</time>
      </trkpt>
      <trkpt lat="42.52119" lon="-0.15156">
        <ele>1405.3</ele>
        <time>2017-08-13T08:51:21Z</time>
      </trkpt>
      <trkpt lat="42.52115" lon="-0.15154">
        <ele>1405.4</ele>
        <time>2017-08-13T08:51:23Z</time>
      </trkpt>
      <trkpt lat="42.52111" lon="-0.15153">
        <ele>1405.5</ele>
        <time>2017-08-13T08:51:25Z</time>
      </trkpt>
      <trkpt lat="42.52107" lon="-0.15152">
        <ele>1405.3</ele>
        <time>2017-08-13T08:51:27Z</time>
      </trkpt>
      <trkpt lat="42.52102" lon="-0.15153">
        <ele>1405.3</ele>
        <time>2017-08-13T08:51:29Z</time>
      </trkpt>
      <trkpt lat="42.52099" lon="-0.15153">
        <ele>1405.3</ele>
        <time>2017-08-13T08:51:31Z</time>
      </trkpt>
      <trkpt lat="42.52095" lon="-0.15153">
        <ele>1405.3</ele>
        <time>2017-08-13T08:51:33Z</time>
      </trkpt>
      <trkpt lat="42.52092" lon="-0.15154">
        <ele>1405.5</ele>
        <time>2017-08-13T08:51:35Z</time>
      </trkpt>
      <trkpt lat="42.52088" lon="-0.15154">
        <ele>1405.8</ele>
        <time>2017-08-13T08:51:37Z</time>
      </trkpt>
      <trkpt lat="42.52083" lon="-0.15154">
        <ele>1406.2</ele>
        <time>2017-08-13T08:51:39Z</time>
      </trkpt>
      <trkpt lat="42.52079" lon="-0.15155">
        <ele>1406.9</ele>
        <time>2017-08-13T08:51:41Z</time>
      </trkpt>
      <trkpt lat="42.52076" lon="-0.15155">
        <ele>1407.6</ele>
        <time>2017-08-13T08:51:43Z</time>
      </trkpt>
      <trkpt lat="42.52073" lon="-0.15156">
        <ele>1408.2</ele>
        <time>2017-08-13T08:51:45Z</time>
      </trkpt>
      <trkpt lat="42.52069" lon="-0.15157">
        <ele>1409.1</ele>
        <time>2017-08-13T08:51:47Z</time>
      </trkpt>
      <trkpt lat="42.52065" lon="-0.15156">
        <ele>1410.1</ele>
        <time>2017-08-13T08:51:49Z</time>
      </trkpt>
      <trkpt lat="42.5206" lon="-0.15154">
        <ele>1411.1</ele>
        <time>2017-08-13T08:51:51Z</time>
      </trkpt>
      <trkpt lat="42.52057" lon="-0.15153">
        <ele>1411.8</ele>
        <time>2017-08-13T08:51:53Z</time>
      </trkpt>
      <trkpt lat="42.52053" lon="-0.15151">
        <ele>1412.5</ele>
        <time>2017-08-13T08:51:55Z</time>
      </trkpt>
      <trkpt lat="42.52049" lon="-0.15149">
        <ele>1413.5</ele>
        <time>2017-08-13T08:51:57Z</time>
      </trkpt>
      <trkpt lat="42.52046" lon="-0.15147">
        <ele>1414.3</ele>
        <time>2017-08-13T08:51:59Z</time>
      </trkpt>
      <trkpt lat="42.52043" lon="-0.15145">
        <ele>1414.9</ele>
        <time>2017-08-13T08:52:01Z</time>
      </trkpt>
      <trkpt lat="42.52039" lon="-0.15143">
        <ele>1415.5</ele>
        <time>2017-08-13T08:52:03Z</time>
      </trkpt>
      <trkpt lat="42.52036" lon="-0.15141">
        <ele>1416.2</ele>
        <time>2017-08-13T08:52:05Z</time>
      </trkpt>
      <trkpt lat="42.52032" lon="-0.1514">
        <ele>1417.2</ele>
        <time>2017-08-13T08:52:07Z</time>
      </trkpt>
      <trkpt lat="42.52028" lon="-0.15138">
        <ele>1418</ele>
        <time>2017-08-13T08:52:09Z</time>
      </trkpt>
      <trkpt lat="42.52024" lon="-0.15135">
        <ele>1418.6</ele>
        <time>2017-08-13T08:52:11Z</time>
      </trkpt>
      <trkpt lat="42.52021" lon="-0.15133">
        <ele>1419.5</ele>
        <time>2017-08-13T08:52:13Z</time>
      </trkpt>
      <trkpt lat="42.52018" lon="-0.15131">
        <ele>1420</ele>
        <time>2017-08-13T08:52:15Z</time>
      </trkpt>
      <trkpt lat="42.52015" lon="-0.15131">
        <ele>1420.5</ele>
        <time>2017-08-13T08:52:17Z</time>
      </trkpt>
      <trkpt lat="42.52012" lon="-0.15133">
        <ele>1421.1</ele>
        <time>2017-08-13T08:52:19Z</time>
      </trkpt>
      <trkpt lat="42.5201" lon="-0.15136">
        <ele>1421.2</ele>
        <time>2017-08-13T08:52:21Z</time>
      </trkpt>
      <trkpt lat="42.52008" lon="-0.1514">
        <ele>1421.1</ele>
        <time>2017-08-13T08:52:23Z</time>
      </trkpt>
      <trkpt lat="42.52007" lon="-0.15146">
        <ele>1421</ele>
        <time>2017-08-13T08:52:25Z</time>
      </trkpt>
      <trkpt lat="42.52007" lon="-0.15152">
        <ele>1420.8</ele>
        <time>2017-08-13T08:52:27Z</time>
      </trkpt>
      <trkpt lat="42.52008" lon="-0.15158">
        <ele>1420.5</ele>
        <time>2017-08-13T08:52:29Z</time>
      </trkpt>
      <trkpt lat="42.5201" lon="-0.15162">
        <ele>1420.1</ele>
        <time>2017-08-13T08:52:31Z</time>
      </trkpt>
      <trkpt lat="42.5201" lon="-0.15167">
        <ele>1420.1</ele>
        <time>2017-08-13T08:52:33Z</time>
      </trkpt>
      <trkpt lat="42.52011" lon="-0.15173">
        <ele>1420.1</ele>
        <time>2017-08-13T08:52:35Z</time>
      </trkpt>
      <trkpt lat="42.52012" lon="-0.15178">
        <ele>1420.3</ele>
        <time>2017-08-13T08:52:37Z</time>
      </trkpt>
      <trkpt lat="42.52012" lon="-0.15182">
        <ele>1420.4</ele>
        <time>2017-08-13T08:52:39Z</time>
      </trkpt>
      <trkpt lat="42.52012" lon="-0.15187">
        <ele>1420.8</ele>
        <time>2017-08-13T08:52:41Z</time>
      </trkpt>
      <trkpt lat="42.52011" lon="-0.15191">
        <ele>1421.2</ele>
        <time>2017-08-13T08:52:43Z</time>
      </trkpt>
      <trkpt lat="42.5201" lon="-0.15195">
        <ele>1421.6</ele>
        <time>2017-08-13T08:52:45Z</time>
      </trkpt>
      <trkpt lat="42.52009" lon="-0.152">
        <ele>1422.4</ele>
        <time>2017-08-13T08:52:47Z</time>
      </trkpt>
      <trkpt lat="42.52007" lon="-0.15204">
        <ele>1423.3</ele>
        <time>2017-08-13T08:52:49Z</time>
      </trkpt>
      <trkpt lat="42.52006" lon="-0.15209">
        <ele>1424.4</ele>
        <time>2017-08-13T08:52:51Z</time>
      </trkpt>
      <trkpt lat="42.52005" lon="-0.15213">
        <ele>1425.5</ele>
        <time>2017-08-13T08:52:53Z</time>
      </trkpt>
      <trkpt lat="42.52003" lon="-0.15217">
        <ele>1426.6</ele>
        <time>2017-08-13T08:52:55Z</time>
      </trkpt>
      <trkpt lat="42.52002" lon="-0.15221">
        <ele>1428.1</ele>
        <time>2017-08-13T08:52:57Z</time>
      </trkpt>
      <trkpt lat="42.52" lon="-0.15226">
        <ele>1429.1</ele>
        <time>2017-08-13T08:52:59Z</time>
      </trkpt>
      <trkpt lat="42.51999" lon="-0.1523">
        <ele>1429.8</ele>
        <time>2017-08-13T08:53:01Z</time>
      </trkpt>
      <trkpt lat="42.51999" lon="-0.15235">
        <ele>1430.6</ele>
        <time>2017-08-13T08:53:03Z</time>
      </trkpt>
      <trkpt lat="42.51999" lon="-0.1524">
        <ele>1431.3</ele>
        <time>2017-08-13T08:53:05Z</time>
      </trkpt>
      <trkpt lat="42.51998" lon="-0.15244">
        <ele>1432</ele>
        <time>2017-08-13T08:53:07Z</time>
      </trkpt>
      <trkpt lat="42.51997" lon="-0.15249">
        <ele>1432.8</ele>
        <time>2017-08-13T08:53:10Z</time>
      </trkpt>
      <trkpt lat="42.51997" lon="-0.15254">
        <ele>1433.5</ele>
        <time>2017-08-13T08:53:13Z</time>
      </trkpt>
      <trkpt lat="42.51997" lon="-0.15259">
        <ele>1434.1</ele>
        <time>2017-08-13T08:53:16Z</time>
      </trkpt>
      <trkpt lat="42.51998" lon="-0.15264">
        <ele>1434.1</ele>
        <time>2017-08-13T08:53:18Z</time>
      </trkpt>
      <trkpt lat="42.51998" lon="-0.15268">
        <ele>1434</ele>
        <time>2017-08-13T08:53:20Z</time>
      </trkpt>
      <trkpt lat="42.51999" lon="-0.15272">
        <ele>1433.6</ele>
        <time>2017-08-13T08:53:22Z</time>
      </trkpt>
      <trkpt lat="42.51999" lon="-0.15276">
        <ele>1433</ele>
        <time>2017-08-13T08:53:24Z</time>
      </trkpt>
      <trkpt lat="42.52" lon="-0.15281">
        <ele>1432.5</ele>
        <time>2017-08-13T08:53:27Z</time>
      </trkpt>
      <trkpt lat="42.52001" lon="-0.15286">
        <ele>1433.1</ele>
        <time>2017-08-13T08:53:30Z</time>
      </trkpt>
      <trkpt lat="42.52002" lon="-0.15291">
        <ele>1433.6</ele>
        <time>2017-08-13T08:53:33Z</time>
      </trkpt>
      <trkpt lat="42.52003" lon="-0.15295">
        <ele>1433.6</ele>
        <time>2017-08-13T08:53:35Z</time>
      </trkpt>
      <trkpt lat="42.52004" lon="-0.15299">
        <ele>1433.7</ele>
        <time>2017-08-13T08:53:37Z</time>
      </trkpt>
      <trkpt lat="42.52005" lon="-0.15304">
        <ele>1434.1</ele>
        <time>2017-08-13T08:53:39Z</time>
      </trkpt>
      <trkpt lat="42.52005" lon="-0.15308">
        <ele>1434.8</ele>
        <time>2017-08-13T08:53:41Z</time>
      </trkpt>
      <trkpt lat="42.52005" lon="-0.15312">
        <ele>1435.4</ele>
        <time>2017-08-13T08:53:43Z</time>
      </trkpt>
      <trkpt lat="42.52005" lon="-0.15316">
        <ele>1435.4</ele>
        <time>2017-08-13T08:53:45Z</time>
      </trkpt>
      <trkpt lat="42.52005" lon="-0.1532">
        <ele>1435.2</ele>
        <time>2017-08-13T08:53:47Z</time>
      </trkpt>
      <trkpt lat="42.52005" lon="-0.15324">
        <ele>1435</ele>
        <time>2017-08-13T08:53:49Z</time>
      </trkpt>
      <trkpt lat="42.52006" lon="-0.15328">
        <ele>1435.5</ele>
        <time>2017-08-13T08:53:51Z</time>
      </trkpt>
      <trkpt lat="42.52007" lon="-0.15332">
        <ele>1435.9</ele>
        <time>2017-08-13T08:53:53Z</time>
      </trkpt>
      <trkpt lat="42.52007" lon="-0.15336">
        <ele>1436.1</ele>
        <time>2017-08-13T08:53:55Z</time>
      </trkpt>
      <trkpt lat="42.52007" lon="-0.1534">
        <ele>1436.1</ele>
        <time>2017-08-13T08:53:57Z</time>
      </trkpt>
      <trkpt lat="42.52007" lon="-0.15344">
        <ele>1436</ele>
        <time>2017-08-13T08:53:59Z</time>
      </trkpt>
      <trkpt lat="42.52007" lon="-0.15349">
        <ele>1436.7</ele>
        <time>2017-08-13T08:54:01Z</time>
      </trkpt>
      <trkpt lat="42.52007" lon="-0.15353">
        <ele>1437.5</ele>
        <time>2017-08-13T08:54:03Z</time>
      </trkpt>
      <trkpt lat="42.52007" lon="-0.15358">
        <ele>1438.2</ele>
        <time>2017-08-13T08:54:05Z</time>
      </trkpt>
      <trkpt lat="42.52006" lon="-0.15362">
        <ele>1438.6</ele>
        <time>2017-08-13T08:54:07Z</time>
      </trkpt>
      <trkpt lat="42.52005" lon="-0.15367">
        <ele>1438.9</ele>
        <time>2017-08-13T08:54:09Z</time>
      </trkpt>
      <trkpt lat="42.52004" lon="-0.15372">
        <ele>1439.6</ele>
        <time>2017-08-13T08:54:11Z</time>
      </trkpt>
      <trkpt lat="42.52002" lon="-0.15376">
        <ele>1440.4</ele>
        <time>2017-08-13T08:54:13Z</time>
      </trkpt>
      <trkpt lat="42.52" lon="-0.15382">
        <ele>1440.9</ele>
        <time>2017-08-13T08:54:15Z</time>
      </trkpt>
      <trkpt lat="42.51999" lon="-0.15388">
        <ele>1440.9</ele>
        <time>2017-08-13T08:54:17Z</time>
      </trkpt>
      <trkpt lat="42.51998" lon="-0.15394">
        <ele>1441.8</ele>
        <time>2017-08-13T08:54:19Z</time>
      </trkpt>
      <trkpt lat="42.51997" lon="-0.154">
        <ele>1443.1</ele>
        <time>2017-08-13T08:54:21Z</time>
      </trkpt>
      <trkpt lat="42.51995" lon="-0.15406">
        <ele>1443.5</ele>
        <time>2017-08-13T08:54:23Z</time>
      </trkpt>
      <trkpt lat="42.51993" lon="-0.15412">
        <ele>1444</ele>
        <time>2017-08-13T08:54:25Z</time>
      </trkpt>
      <trkpt lat="42.5199" lon="-0.15417">
        <ele>1444.9</ele>
        <time>2017-08-13T08:54:27Z</time>
      </trkpt>
      <trkpt lat="42.51987" lon="-0.15422">
        <ele>1445.3</ele>
        <time>2017-08-13T08:54:29Z</time>
      </trkpt>
      <trkpt lat="42.51983" lon="-0.15425">
        <ele>1445.4</ele>
        <time>2017-08-13T08:54:31Z</time>
      </trkpt>
      <trkpt lat="42.51978" lon="-0.15429">
        <ele>1446.7</ele>
        <time>2017-08-13T08:54:33Z</time>
      </trkpt>
      <trkpt lat="42.51973" lon="-0.15433">
        <ele>1447.6</ele>
        <time>2017-08-13T08:54:35Z</time>
      </trkpt>
      <trkpt lat="42.51968" lon="-0.15434">
        <ele>1448.2</ele>
        <time>2017-08-13T08:54:37Z</time>
      </trkpt>
      <trkpt lat="42.51966" lon="-0.15435">
        <ele>1448.6</ele>
        <time>2017-08-13T08:54:38Z</time>
      </trkpt>
      <trkpt lat="42.51963" lon="-0.15435">
        <ele>1449.3</ele>
        <time>2017-08-13T08:54:39Z</time>
      </trkpt>
      <trkpt lat="42.5196" lon="-0.15436">
        <ele>1450.1</ele>
        <time>2017-08-13T08:54:40Z</time>
      </trkpt>
      <trkpt lat="42.51955" lon="-0.15437">
        <ele>1451</ele>
        <time>2017-08-13T08:54:42Z</time>
      </trkpt>
      <trkpt lat="42.51952" lon="-0.15438">
        <ele>1451.4</ele>
        <time>2017-08-13T08:54:43Z</time>
      </trkpt>
      <trkpt lat="42.51949" lon="-0.15439">
        <ele>1451.7</ele>
        <time>2017-08-13T08:54:44Z</time>
      </trkpt>
      <trkpt lat="42.51946" lon="-0.1544">
        <ele>1451.8</ele>
        <time>2017-08-13T08:54:45Z</time>
      </trkpt>
      <trkpt lat="42.51944" lon="-0.15442">
        <ele>1451.9</ele>
        <time>2017-08-13T08:54:46Z</time>
      </trkpt>
      <trkpt lat="42.51941" lon="-0.15443">
        <ele>1452.1</ele>
        <time>2017-08-13T08:54:47Z</time>
      </trkpt>
      <trkpt lat="42.51938" lon="-0.15444">
        <ele>1452.3</ele>
        <time>2017-08-13T08:54:48Z</time>
      </trkpt>
      <trkpt lat="42.51936" lon="-0.15446">
        <ele>1452.5</ele>
        <time>2017-08-13T08:54:49Z</time>
      </trkpt>
      <trkpt lat="42.51934" lon="-0.15448">
        <ele>1452.8</ele>
        <time>2017-08-13T08:54:50Z</time>
      </trkpt>
      <trkpt lat="42.51931" lon="-0.1545">
        <ele>1453.2</ele>
        <time>2017-08-13T08:54:51Z</time>
      </trkpt>
      <trkpt lat="42.51929" lon="-0.15453">
        <ele>1453.5</ele>
        <time>2017-08-13T08:54:52Z</time>
      </trkpt>
      <trkpt lat="42.51925" lon="-0.15457">
        <ele>1454.3</ele>
        <time>2017-08-13T08:54:54Z</time>
      </trkpt>
      <trkpt lat="42.51922" lon="-0.15463">
        <ele>1454.7</ele>
        <time>2017-08-13T08:54:56Z</time>
      </trkpt>
      <trkpt lat="42.51919" lon="-0.15467">
        <ele>1454.9</ele>
        <time>2017-08-13T08:54:58Z</time>
      </trkpt>
      <trkpt lat="42.51915" lon="-0.15473">
        <ele>1455.4</ele>
        <time>2017-08-13T08:55:00Z</time>
      </trkpt>
      <trkpt lat="42.51912" lon="-0.15478">
        <ele>1455.8</ele>
        <time>2017-08-13T08:55:02Z</time>
      </trkpt>
      <trkpt lat="42.51909" lon="-0.15483">
        <ele>1456.1</ele>
        <time>2017-08-13T08:55:04Z</time>
      </trkpt>
      <trkpt lat="42.51906" lon="-0.15488">
        <ele>1456.6</ele>
        <time>2017-08-13T08:55:06Z</time>
      </trkpt>
      <trkpt lat="42.51903" lon="-0.15492">
        <ele>1457.2</ele>
        <time>2017-08-13T08:55:08Z</time>
      </trkpt>
      <trkpt lat="42.51901" lon="-0.15497">
        <ele>1457.4</ele>
        <time>2017-08-13T08:55:10Z</time>
      </trkpt>
      <trkpt lat="42.51898" lon="-0.15502">
        <ele>1457.7</ele>
        <time>2017-08-13T08:55:12Z</time>
      </trkpt>
      <trkpt lat="42.51896" lon="-0.15507">
        <ele>1458</ele>
        <time>2017-08-13T08:55:14Z</time>
      </trkpt>
      <trkpt lat="42.51895" lon="-0.15513">
        <ele>1458.4</ele>
        <time>2017-08-13T08:55:16Z</time>
      </trkpt>
      <trkpt lat="42.51895" lon="-0.15519">
        <ele>1458.8</ele>
        <time>2017-08-13T08:55:18Z</time>
      </trkpt>
      <trkpt lat="42.51896" lon="-0.15524">
        <ele>1459.4</ele>
        <time>2017-08-13T08:55:20Z</time>
      </trkpt>
      <trkpt lat="42.51899" lon="-0.15531">
        <ele>1459.6</ele>
        <time>2017-08-13T08:55:22Z</time>
      </trkpt>
      <trkpt lat="42.519" lon="-0.15537">
        <ele>1459.7</ele>
        <time>2017-08-13T08:55:24Z</time>
      </trkpt>
      <trkpt lat="42.51901" lon="-0.15542">
        <ele>1459.8</ele>
        <time>2017-08-13T08:55:26Z</time>
      </trkpt>
      <trkpt lat="42.51902" lon="-0.15546">
        <ele>1459.9</ele>
        <time>2017-08-13T08:55:28Z</time>
      </trkpt>
      <trkpt lat="42.51902" lon="-0.15551">
        <ele>1460</ele>
        <time>2017-08-13T08:55:30Z</time>
      </trkpt>
      <trkpt lat="42.51903" lon="-0.15556">
        <ele>1460</ele>
        <time>2017-08-13T08:55:32Z</time>
      </trkpt>
      <trkpt lat="42.51904" lon="-0.15561">
        <ele>1459.9</ele>
        <time>2017-08-13T08:55:34Z</time>
      </trkpt>
      <trkpt lat="42.51904" lon="-0.15566">
        <ele>1459.8</ele>
        <time>2017-08-13T08:55:36Z</time>
      </trkpt>
      <trkpt lat="42.51903" lon="-0.15571">
        <ele>1459.7</ele>
        <time>2017-08-13T08:55:38Z</time>
      </trkpt>
      <trkpt lat="42.51902" lon="-0.15576">
        <ele>1459.9</ele>
        <time>2017-08-13T08:55:40Z</time>
      </trkpt>
      <trkpt lat="42.51901" lon="-0.15581">
        <ele>1460.1</ele>
        <time>2017-08-13T08:55:42Z</time>
      </trkpt>
      <trkpt lat="42.51901" lon="-0.15587">
        <ele>1460.3</ele>
        <time>2017-08-13T08:55:44Z</time>
      </trkpt>
      <trkpt lat="42.51901" lon="-0.15593">
        <ele>1460.6</ele>
        <time>2017-08-13T08:55:46Z</time>
      </trkpt>
      <trkpt lat="42.51901" lon="-0.15599">
        <ele>1460.8</ele>
        <time>2017-08-13T08:55:48Z</time>
      </trkpt>
      <trkpt lat="42.51901" lon="-0.15604">
        <ele>1461.5</ele>
        <time>2017-08-13T08:55:50Z</time>
      </trkpt>
      <trkpt lat="42.519" lon="-0.1561">
        <ele>1462.2</ele>
        <time>2017-08-13T08:55:52Z</time>
      </trkpt>
      <trkpt lat="42.51899" lon="-0.15615">
        <ele>1462.6</ele>
        <time>2017-08-13T08:55:54Z</time>
      </trkpt>
      <trkpt lat="42.51897" lon="-0.1562">
        <ele>1463.1</ele>
        <time>2017-08-13T08:55:56Z</time>
      </trkpt>
      <trkpt lat="42.51895" lon="-0.15625">
        <ele>1463.8</ele>
        <time>2017-08-13T08:55:58Z</time>
      </trkpt>
      <trkpt lat="42.51894" lon="-0.1563">
        <ele>1464.5</ele>
        <time>2017-08-13T08:56:00Z</time>
      </trkpt>
      <trkpt lat="42.51893" lon="-0.15634">
        <ele>1465.3</ele>
        <time>2017-08-13T08:56:02Z</time>
      </trkpt>
      <trkpt lat="42.51891" lon="-0.1564">
        <ele>1466.2</ele>
        <time>2017-08-13T08:56:04Z</time>
      </trkpt>
      <trkpt lat="42.51889" lon="-0.15645">
        <ele>1467.3</ele>
        <time>2017-08-13T08:56:06Z</time>
      </trkpt>
      <trkpt lat="42.51887" lon="-0.15651">
        <ele>1468.8</ele>
        <time>2017-08-13T08:56:08Z</time>
      </trkpt>
      <trkpt lat="42.51885" lon="-0.15656">
        <ele>1470.4</ele>
        <time>2017-08-13T08:56:10Z</time>
      </trkpt>
      <trkpt lat="42.51883" lon="-0.1566">
        <ele>1471.5</ele>
        <time>2017-08-13T08:56:12Z</time>
      </trkpt>
      <trkpt lat="42.5188" lon="-0.15665">
        <ele>1472.6</ele>
        <time>2017-08-13T08:56:14Z</time>
      </trkpt>
      <trkpt lat="42.51878" lon="-0.15668">
        <ele>1473.6</ele>
        <time>2017-08-13T08:56:16Z</time>
      </trkpt>
      <trkpt lat="42.51874" lon="-0.15671">
        <ele>1474.8</ele>
        <time>2017-08-13T08:56:18Z</time>
      </trkpt>
      <trkpt lat="42.5187" lon="-0.15673">
        <ele>1476</ele>
        <time>2017-08-13T08:56:20Z</time>
      </trkpt>
      <trkpt lat="42.51867" lon="-0.15675">
        <ele>1476.4</ele>
        <time>2017-08-13T08:56:22Z</time>
      </trkpt>
      <trkpt lat="42.51863" lon="-0.15676">
        <ele>1476.2</ele>
        <time>2017-08-13T08:56:25Z</time>
      </trkpt>
      <trkpt lat="42.51859" lon="-0.15676">
        <ele>1475.9</ele>
        <time>2017-08-13T08:56:27Z</time>
      </trkpt>
      <trkpt lat="42.51856" lon="-0.15676">
        <ele>1475.4</ele>
        <time>2017-08-13T08:56:29Z</time>
      </trkpt>
      <trkpt lat="42.51852" lon="-0.15674">
        <ele>1474.9</ele>
        <time>2017-08-13T08:56:31Z</time>
      </trkpt>
      <trkpt lat="42.5185" lon="-0.15672">
        <ele>1474.5</ele>
        <time>2017-08-13T08:56:33Z</time>
      </trkpt>
      <trkpt lat="42.51848" lon="-0.15668">
        <ele>1474.2</ele>
        <time>2017-08-13T08:56:35Z</time>
      </trkpt>
      <trkpt lat="42.51847" lon="-0.15664">
        <ele>1473.8</ele>
        <time>2017-08-13T08:56:37Z</time>
      </trkpt>
      <trkpt lat="42.51844" lon="-0.1566">
        <ele>1473.6</ele>
        <time>2017-08-13T08:56:40Z</time>
      </trkpt>
      <trkpt lat="42.51842" lon="-0.15658">
        <ele>1473.4</ele>
        <time>2017-08-13T08:56:42Z</time>
      </trkpt>
      <trkpt lat="42.5184" lon="-0.15656">
        <ele>1473.4</ele>
        <time>2017-08-13T08:56:44Z</time>
      </trkpt>
      <trkpt lat="42.51837" lon="-0.15652">
        <ele>1473.5</ele>
        <time>2017-08-13T08:56:47Z</time>
      </trkpt>
      <trkpt lat="42.51835" lon="-0.15648">
        <ele>1473.6</ele>
        <time>2017-08-13T08:56:49Z</time>
      </trkpt>
      <trkpt lat="42.51833" lon="-0.15644">
        <ele>1473.5</ele>
        <time>2017-08-13T08:56:51Z</time>
      </trkpt>
      <trkpt lat="42.51832" lon="-0.15639">
        <ele>1473.5</ele>
        <time>2017-08-13T08:56:53Z</time>
      </trkpt>
      <trkpt lat="42.5183" lon="-0.15636">
        <ele>1473.5</ele>
        <time>2017-08-13T08:56:55Z</time>
      </trkpt>
      <trkpt lat="42.51828" lon="-0.15633">
        <ele>1473.5</ele>
        <time>2017-08-13T08:56:57Z</time>
      </trkpt>
      <trkpt lat="42.51826" lon="-0.1563">
        <ele>1473.7</ele>
        <time>2017-08-13T08:56:59Z</time>
      </trkpt>
      <trkpt lat="42.51824" lon="-0.15627">
        <ele>1473.8</ele>
        <time>2017-08-13T08:57:01Z</time>
      </trkpt>
      <trkpt lat="42.51822" lon="-0.15624">
        <ele>1473.9</ele>
        <time>2017-08-13T08:57:03Z</time>
      </trkpt>
      <trkpt lat="42.5182" lon="-0.15622">
        <ele>1473.9</ele>
        <time>2017-08-13T08:57:05Z</time>
      </trkpt>
      <trkpt lat="42.51817" lon="-0.15618">
        <ele>1474.1</ele>
        <time>2017-08-13T08:57:08Z</time>
      </trkpt>
      <trkpt lat="42.51815" lon="-0.15614">
        <ele>1474.3</ele>
        <time>2017-08-13T08:57:10Z</time>
      </trkpt>
      <trkpt lat="42.51814" lon="-0.15611">
        <ele>1474.6</ele>
        <time>2017-08-13T08:57:12Z</time>
      </trkpt>
      <trkpt lat="42.51812" lon="-0.15608">
        <ele>1474.9</ele>
        <time>2017-08-13T08:57:14Z</time>
      </trkpt>
      <trkpt lat="42.51811" lon="-0.15605">
        <ele>1475.3</ele>
        <time>2017-08-13T08:57:16Z</time>
      </trkpt>
      <trkpt lat="42.51808" lon="-0.15602">
        <ele>1475.9</ele>
        <time>2017-08-13T08:57:18Z</time>
      </trkpt>
      <trkpt lat="42.51806" lon="-0.15598">
        <ele>1476.4</ele>
        <time>2017-08-13T08:57:20Z</time>
      </trkpt>
      <trkpt lat="42.51804" lon="-0.15596">
        <ele>1477</ele>
        <time>2017-08-13T08:57:22Z</time>
      </trkpt>
      <trkpt lat="42.51803" lon="-0.15592">
        <ele>1477.5</ele>
        <time>2017-08-13T08:57:24Z</time>
      </trkpt>
      <trkpt lat="42.51801" lon="-0.15589">
        <ele>1478.1</ele>
        <time>2017-08-13T08:57:26Z</time>
      </trkpt>
      <trkpt lat="42.518" lon="-0.15585">
        <ele>1478.6</ele>
        <time>2017-08-13T08:57:28Z</time>
      </trkpt>
      <trkpt lat="42.51798" lon="-0.15581">
        <ele>1479</ele>
        <time>2017-08-13T08:57:31Z</time>
      </trkpt>
      <trkpt lat="42.51797" lon="-0.15577">
        <ele>1479.3</ele>
        <time>2017-08-13T08:57:33Z</time>
      </trkpt>
      <trkpt lat="42.51795" lon="-0.15573">
        <ele>1479.9</ele>
        <time>2017-08-13T08:57:36Z</time>
      </trkpt>
      <trkpt lat="42.51794" lon="-0.15569">
        <ele>1480.4</ele>
        <time>2017-08-13T08:57:39Z</time>
      </trkpt>
      <trkpt lat="42.51792" lon="-0.15564">
        <ele>1481</ele>
        <time>2017-08-13T08:57:42Z</time>
      </trkpt>
      <trkpt lat="42.51792" lon="-0.15558">
        <ele>1481.4</ele>
        <time>2017-08-13T08:57:45Z</time>
      </trkpt>
      <trkpt lat="42.51791" lon="-0.15555">
        <ele>1481.7</ele>
        <time>2017-08-13T08:57:47Z</time>
      </trkpt>
      <trkpt lat="42.5179" lon="-0.1555">
        <ele>1482.1</ele>
        <time>2017-08-13T08:57:50Z</time>
      </trkpt>
      <trkpt lat="42.51789" lon="-0.15546">
        <ele>1482.4</ele>
        <time>2017-08-13T08:57:52Z</time>
      </trkpt>
      <trkpt lat="42.51788" lon="-0.15542">
        <ele>1482.7</ele>
        <time>2017-08-13T08:57:54Z</time>
      </trkpt>
      <trkpt lat="42.51787" lon="-0.15539">
        <ele>1483.2</ele>
        <time>2017-08-13T08:57:56Z</time>
      </trkpt>
      <trkpt lat="42.51785" lon="-0.15534">
        <ele>1484</ele>
        <time>2017-08-13T08:57:59Z</time>
      </trkpt>
      <trkpt lat="42.51783" lon="-0.15531">
        <ele>1484.8</ele>
        <time>2017-08-13T08:58:02Z</time>
      </trkpt>
      <trkpt lat="42.5178" lon="-0.15528">
        <ele>1484.8</ele>
        <time>2017-08-13T08:58:05Z</time>
      </trkpt>
      <trkpt lat="42.51777" lon="-0.15527">
        <ele>1485.2</ele>
        <time>2017-08-13T08:58:08Z</time>
      </trkpt>
      <trkpt lat="42.51774" lon="-0.15528">
        <ele>1485.5</ele>
        <time>2017-08-13T08:58:11Z</time>
      </trkpt>
      <trkpt lat="42.51771" lon="-0.1553">
        <ele>1485.8</ele>
        <time>2017-08-13T08:58:15Z</time>
      </trkpt>
      <trkpt lat="42.5177" lon="-0.15533">
        <ele>1486.1</ele>
        <time>2017-08-13T08:58:18Z</time>
      </trkpt>
      <trkpt lat="42.51769" lon="-0.15537">
        <ele>1486.3</ele>
        <time>2017-08-13T08:58:20Z</time>
      </trkpt>
      <trkpt lat="42.51768" lon="-0.15542">
        <ele>1486.3</ele>
        <time>2017-08-13T08:58:22Z</time>
      </trkpt>
      <trkpt lat="42.51767" lon="-0.15546">
        <ele>1486.2</ele>
        <time>2017-08-13T08:58:24Z</time>
      </trkpt>
      <trkpt lat="42.51767" lon="-0.15551">
        <ele>1486.1</ele>
        <time>2017-08-13T08:58:26Z</time>
      </trkpt>
      <trkpt lat="42.51768" lon="-0.15555">
        <ele>1485.9</ele>
        <time>2017-08-13T08:58:28Z</time>
      </trkpt>
      <trkpt lat="42.51767" lon="-0.1556">
        <ele>1485.6</ele>
        <time>2017-08-13T08:58:30Z</time>
      </trkpt>
      <trkpt lat="42.51767" lon="-0.15566">
        <ele>1485.3</ele>
        <time>2017-08-13T08:58:32Z</time>
      </trkpt>
      <trkpt lat="42.51767" lon="-0.15571">
        <ele>1485</ele>
        <time>2017-08-13T08:58:34Z</time>
      </trkpt>
      <trkpt lat="42.51767" lon="-0.15576">
        <ele>1484.8</ele>
        <time>2017-08-13T08:58:36Z</time>
      </trkpt>
      <trkpt lat="42.51766" lon="-0.15582">
        <ele>1484.7</ele>
        <time>2017-08-13T08:58:38Z</time>
      </trkpt>
      <trkpt lat="42.51765" lon="-0.15587">
        <ele>1484.7</ele>
        <time>2017-08-13T08:58:40Z</time>
      </trkpt>
      <trkpt lat="42.51766" lon="-0.15592">
        <ele>1484.8</ele>
        <time>2017-08-13T08:58:42Z</time>
      </trkpt>
      <trkpt lat="42.51766" lon="-0.15598">
        <ele>1485</ele>
        <time>2017-08-13T08:58:44Z</time>
      </trkpt>
      <trkpt lat="42.51767" lon="-0.15603">
        <ele>1485.4</ele>
        <time>2017-08-13T08:58:46Z</time>
      </trkpt>
      <trkpt lat="42.51767" lon="-0.15609">
        <ele>1485.8</ele>
        <time>2017-08-13T08:58:48Z</time>
      </trkpt>
      <trkpt lat="42.51767" lon="-0.15614">
        <ele>1486.3</ele>
        <time>2017-08-13T08:58:50Z</time>
      </trkpt>
      <trkpt lat="42.51767" lon="-0.1562">
        <ele>1486.8</ele>
        <time>2017-08-13T08:58:52Z</time>
      </trkpt>
      <trkpt lat="42.51766" lon="-0.15626">
        <ele>1487.4</ele>
        <time>2017-08-13T08:58:54Z</time>
      </trkpt>
      <trkpt lat="42.51764" lon="-0.15631">
        <ele>1487.9</ele>
        <time>2017-08-13T08:58:56Z</time>
      </trkpt>
      <trkpt lat="42.51763" lon="-0.15637">
        <ele>1488.2</ele>
        <time>2017-08-13T08:58:58Z</time>
      </trkpt>
      <trkpt lat="42.51761" lon="-0.15642">
        <ele>1488.9</ele>
        <time>2017-08-13T08:59:00Z</time>
      </trkpt>
      <trkpt lat="42.51759" lon="-0.15646">
        <ele>1489.9</ele>
        <time>2017-08-13T08:59:02Z</time>
      </trkpt>
      <trkpt lat="42.51758" lon="-0.15651">
        <ele>1490.6</ele>
        <time>2017-08-13T08:59:04Z</time>
      </trkpt>
      <trkpt lat="42.51757" lon="-0.15656">
        <ele>1491.4</ele>
        <time>2017-08-13T08:59:06Z</time>
      </trkpt>
      <trkpt lat="42.51756" lon="-0.15662">
        <ele>1491.9</ele>
        <time>2017-08-13T08:59:08Z</time>
      </trkpt>
      <trkpt lat="42.51757" lon="-0.15667">
        <ele>1492</ele>
        <time>2017-08-13T08:59:10Z</time>
      </trkpt>
      <trkpt lat="42.51756" lon="-0.15672">
        <ele>1492</ele>
        <time>2017-08-13T08:59:12Z</time>
      </trkpt>
      <trkpt lat="42.51756" lon="-0.15678">
        <ele>1491.8</ele>
        <time>2017-08-13T08:59:14Z</time>
      </trkpt>
      <trkpt lat="42.51755" lon="-0.15683">
        <ele>1491.6</ele>
        <time>2017-08-13T08:59:16Z</time>
      </trkpt>
      <trkpt lat="42.51754" lon="-0.15689">
        <ele>1491.3</ele>
        <time>2017-08-13T08:59:18Z</time>
      </trkpt>
      <trkpt lat="42.51753" lon="-0.15694">
        <ele>1491</ele>
        <time>2017-08-13T08:59:20Z</time>
      </trkpt>
      <trkpt lat="42.51751" lon="-0.15701">
        <ele>1490.7</ele>
        <time>2017-08-13T08:59:22Z</time>
      </trkpt>
      <trkpt lat="42.5175" lon="-0.15708">
        <ele>1490.9</ele>
        <time>2017-08-13T08:59:24Z</time>
      </trkpt>
      <trkpt lat="42.51749" lon="-0.15713">
        <ele>1491.3</ele>
        <time>2017-08-13T08:59:26Z</time>
      </trkpt>
      <trkpt lat="42.51748" lon="-0.15717">
        <ele>1491.6</ele>
        <time>2017-08-13T08:59:28Z</time>
      </trkpt>
      <trkpt lat="42.51749" lon="-0.15722">
        <ele>1491.8</ele>
        <time>2017-08-13T08:59:30Z</time>
      </trkpt>
      <trkpt lat="42.51749" lon="-0.15728">
        <ele>1492.1</ele>
        <time>2017-08-13T08:59:32Z</time>
      </trkpt>
      <trkpt lat="42.51749" lon="-0.15734">
        <ele>1492</ele>
        <time>2017-08-13T08:59:34Z</time>
      </trkpt>
      <trkpt lat="42.51749" lon="-0.1574">
        <ele>1492</ele>
        <time>2017-08-13T08:59:36Z</time>
      </trkpt>
      <trkpt lat="42.51749" lon="-0.15745">
        <ele>1492</ele>
        <time>2017-08-13T08:59:38Z</time>
      </trkpt>
      <trkpt lat="42.51749" lon="-0.15751">
        <ele>1492.1</ele>
        <time>2017-08-13T08:59:40Z</time>
      </trkpt>
      <trkpt lat="42.51748" lon="-0.15755">
        <ele>1492.3</ele>
        <time>2017-08-13T08:59:42Z</time>
      </trkpt>
      <trkpt lat="42.51744" lon="-0.15758">
        <ele>1492.8</ele>
        <time>2017-08-13T08:59:44Z</time>
      </trkpt>
      <trkpt lat="42.5174" lon="-0.15757">
        <ele>1493.9</ele>
        <time>2017-08-13T08:59:46Z</time>
      </trkpt>
      <trkpt lat="42.51737" lon="-0.15753">
        <ele>1495.1</ele>
        <time>2017-08-13T08:59:48Z</time>
      </trkpt>
      <trkpt lat="42.51734" lon="-0.15748">
        <ele>1495.4</ele>
        <time>2017-08-13T08:59:50Z</time>
      </trkpt>
      <trkpt lat="42.51732" lon="-0.15742">
        <ele>1494.7</ele>
        <time>2017-08-13T08:59:52Z</time>
      </trkpt>
      <trkpt lat="42.51731" lon="-0.15738">
        <ele>1494.6</ele>
        <time>2017-08-13T08:59:53Z</time>
      </trkpt>
      <trkpt lat="42.5173" lon="-0.15735">
        <ele>1494.5</ele>
        <time>2017-08-13T08:59:54Z</time>
      </trkpt>
      <trkpt lat="42.51729" lon="-0.15731">
        <ele>1494.1</ele>
        <time>2017-08-13T08:59:55Z</time>
      </trkpt>
      <trkpt lat="42.51728" lon="-0.15728">
        <ele>1493.7</ele>
        <time>2017-08-13T08:59:56Z</time>
      </trkpt>
      <trkpt lat="42.51727" lon="-0.15724">
        <ele>1493.5</ele>
        <time>2017-08-13T08:59:57Z</time>
      </trkpt>
      <trkpt lat="42.51726" lon="-0.15719">
        <ele>1493.3</ele>
        <time>2017-08-13T08:59:59Z</time>
      </trkpt>
      <trkpt lat="42.51724" lon="-0.15717">
        <ele>1493.2</ele>
        <time>2017-08-13T09:00:06Z</time>
      </trkpt>
      <trkpt lat="42.51722" lon="-0.15719">
        <ele>1493.3</ele>
        <time>2017-08-13T09:00:11Z</time>
      </trkpt>
      <trkpt lat="42.51722" lon="-0.15723">
        <ele>1493.4</ele>
        <time>2017-08-13T09:00:17Z</time>
      </trkpt>
      <trkpt lat="42.51721" lon="-0.15727">
        <ele>1493.5</ele>
        <time>2017-08-13T09:00:19Z</time>
      </trkpt>
      <trkpt lat="42.5172" lon="-0.15731">
        <ele>1493.7</ele>
        <time>2017-08-13T09:00:21Z</time>
      </trkpt>
      <trkpt lat="42.51719" lon="-0.15734">
        <ele>1494</ele>
        <time>2017-08-13T09:00:23Z</time>
      </trkpt>
      <trkpt lat="42.51717" lon="-0.15738">
        <ele>1494.2</ele>
        <time>2017-08-13T09:00:25Z</time>
      </trkpt>
      <trkpt lat="42.51715" lon="-0.15741">
        <ele>1494.5</ele>
        <time>2017-08-13T09:00:27Z</time>
      </trkpt>
      <trkpt lat="42.51715" lon="-0.15745">
        <ele>1494.6</ele>
        <time>2017-08-13T09:00:29Z</time>
      </trkpt>
      <trkpt lat="42.51714" lon="-0.15749">
        <ele>1494.6</ele>
        <time>2017-08-13T09:00:31Z</time>
      </trkpt>
      <trkpt lat="42.51715" lon="-0.15754">
        <ele>1494.7</ele>
        <time>2017-08-13T09:00:33Z</time>
      </trkpt>
      <trkpt lat="42.51715" lon="-0.15759">
        <ele>1495.4</ele>
        <time>2017-08-13T09:00:35Z</time>
      </trkpt>
      <trkpt lat="42.51716" lon="-0.15763">
        <ele>1494.8</ele>
        <time>2017-08-13T09:00:37Z</time>
      </trkpt>
      <trkpt lat="42.51717" lon="-0.15768">
        <ele>1495</ele>
        <time>2017-08-13T09:00:39Z</time>
      </trkpt>
      <trkpt lat="42.51716" lon="-0.15773">
        <ele>1495.1</ele>
        <time>2017-08-13T09:00:41Z</time>
      </trkpt>
      <trkpt lat="42.51716" lon="-0.15778">
        <ele>1495.2</ele>
        <time>2017-08-13T09:00:43Z</time>
      </trkpt>
      <trkpt lat="42.51718" lon="-0.15782">
        <ele>1495.3</ele>
        <time>2017-08-13T09:00:45Z</time>
      </trkpt>
      <trkpt lat="42.51719" lon="-0.15787">
        <ele>1494.8</ele>
        <time>2017-08-13T09:00:47Z</time>
      </trkpt>
      <trkpt lat="42.5172" lon="-0.15791">
        <ele>1495</ele>
        <time>2017-08-13T09:00:49Z</time>
      </trkpt>
      <trkpt lat="42.51721" lon="-0.15796">
        <ele>1495.1</ele>
        <time>2017-08-13T09:00:51Z</time>
      </trkpt>
      <trkpt lat="42.51722" lon="-0.15803">
        <ele>1495.6</ele>
        <time>2017-08-13T09:00:53Z</time>
      </trkpt>
      <trkpt lat="42.51722" lon="-0.15806">
        <ele>1495</ele>
        <time>2017-08-13T09:00:54Z</time>
      </trkpt>
      <trkpt lat="42.51723" lon="-0.1581">
        <ele>1495.3</ele>
        <time>2017-08-13T09:00:55Z</time>
      </trkpt>
      <trkpt lat="42.51723" lon="-0.15814">
        <ele>1495.3</ele>
        <time>2017-08-13T09:00:56Z</time>
      </trkpt>
      <trkpt lat="42.51723" lon="-0.15818">
        <ele>1495.7</ele>
        <time>2017-08-13T09:00:57Z</time>
      </trkpt>
      <trkpt lat="42.51723" lon="-0.15822">
        <ele>1496.1</ele>
        <time>2017-08-13T09:00:58Z</time>
      </trkpt>
      <trkpt lat="42.51723" lon="-0.15826">
        <ele>1496.5</ele>
        <time>2017-08-13T09:00:59Z</time>
      </trkpt>
      <trkpt lat="42.51723" lon="-0.1583">
        <ele>1496.7</ele>
        <time>2017-08-13T09:01:00Z</time>
      </trkpt>
      <trkpt lat="42.51724" lon="-0.15834">
        <ele>1496.9</ele>
        <time>2017-08-13T09:01:01Z</time>
      </trkpt>
      <trkpt lat="42.51724" lon="-0.15838">
        <ele>1497</ele>
        <time>2017-08-13T09:01:02Z</time>
      </trkpt>
      <trkpt lat="42.51724" lon="-0.15842">
        <ele>1497</ele>
        <time>2017-08-13T09:01:03Z</time>
      </trkpt>
      <trkpt lat="42.51725" lon="-0.15849">
        <ele>1496.9</ele>
        <time>2017-08-13T09:01:05Z</time>
      </trkpt>
      <trkpt lat="42.51725" lon="-0.15856">
        <ele>1495.9</ele>
        <time>2017-08-13T09:01:07Z</time>
      </trkpt>
      <trkpt lat="42.51725" lon="-0.1586">
        <ele>1495.9</ele>
        <time>2017-08-13T09:01:08Z</time>
      </trkpt>
      <trkpt lat="42.51725" lon="-0.15864">
        <ele>1496.9</ele>
        <time>2017-08-13T09:01:09Z</time>
      </trkpt>
      <trkpt lat="42.51725" lon="-0.15868">
        <ele>1497.1</ele>
        <time>2017-08-13T09:01:10Z</time>
      </trkpt>
      <trkpt lat="42.51724" lon="-0.15872">
        <ele>1497.3</ele>
        <time>2017-08-13T09:01:11Z</time>
      </trkpt>
      <trkpt lat="42.51724" lon="-0.15876">
        <ele>1497.5</ele>
        <time>2017-08-13T09:01:12Z</time>
      </trkpt>
      <trkpt lat="42.51724" lon="-0.1588">
        <ele>1497.7</ele>
        <time>2017-08-13T09:01:13Z</time>
      </trkpt>
      <trkpt lat="42.51724" lon="-0.15886">
        <ele>1497.8</ele>
        <time>2017-08-13T09:01:15Z</time>
      </trkpt>
      <trkpt lat="42.51725" lon="-0.15891">
        <ele>1497.9</ele>
        <time>2017-08-13T09:01:17Z</time>
      </trkpt>
      <trkpt lat="42.51726" lon="-0.15897">
        <ele>1496.9</ele>
        <time>2017-08-13T09:01:19Z</time>
      </trkpt>
      <trkpt lat="42.51726" lon="-0.15903">
        <ele>1496.7</ele>
        <time>2017-08-13T09:01:21Z</time>
      </trkpt>
      <trkpt lat="42.51726" lon="-0.15907">
        <ele>1496.4</ele>
        <time>2017-08-13T09:01:22Z</time>
      </trkpt>
      <trkpt lat="42.51726" lon="-0.15914">
        <ele>1495.9</ele>
        <time>2017-08-13T09:01:24Z</time>
      </trkpt>
      <trkpt lat="42.51726" lon="-0.15921">
        <ele>1495.7</ele>
        <time>2017-08-13T09:01:26Z</time>
      </trkpt>
      <trkpt lat="42.51724" lon="-0.15928">
        <ele>1496.5</ele>
        <time>2017-08-13T09:01:28Z</time>
      </trkpt>
      <trkpt lat="42.51723" lon="-0.15935">
        <ele>1496.5</ele>
        <time>2017-08-13T09:01:30Z</time>
      </trkpt>
      <trkpt lat="42.51723" lon="-0.15942">
        <ele>1496.6</ele>
        <time>2017-08-13T09:01:32Z</time>
      </trkpt>
      <trkpt lat="42.51723" lon="-0.15949">
        <ele>1496.9</ele>
        <time>2017-08-13T09:01:34Z</time>
      </trkpt>
      <trkpt lat="42.51723" lon="-0.15955">
        <ele>1497.2</ele>
        <time>2017-08-13T09:01:36Z</time>
      </trkpt>
      <trkpt lat="42.51723" lon="-0.1596">
        <ele>1497.9</ele>
        <time>2017-08-13T09:01:38Z</time>
      </trkpt>
      <trkpt lat="42.51722" lon="-0.15966">
        <ele>1499.4</ele>
        <time>2017-08-13T09:01:40Z</time>
      </trkpt>
      <trkpt lat="42.51721" lon="-0.15972">
        <ele>1499.8</ele>
        <time>2017-08-13T09:01:42Z</time>
      </trkpt>
      <trkpt lat="42.51721" lon="-0.15977">
        <ele>1500.5</ele>
        <time>2017-08-13T09:01:44Z</time>
      </trkpt>
      <trkpt lat="42.51723" lon="-0.15982">
        <ele>1499.7</ele>
        <time>2017-08-13T09:01:46Z</time>
      </trkpt>
      <trkpt lat="42.51723" lon="-0.15988">
        <ele>1500.1</ele>
        <time>2017-08-13T09:01:48Z</time>
      </trkpt>
      <trkpt lat="42.51723" lon="-0.15993">
        <ele>1500.4</ele>
        <time>2017-08-13T09:01:50Z</time>
      </trkpt>
      <trkpt lat="42.51722" lon="-0.15999">
        <ele>1501.9</ele>
        <time>2017-08-13T09:01:52Z</time>
      </trkpt>
      <trkpt lat="42.51721" lon="-0.16005">
        <ele>1502.1</ele>
        <time>2017-08-13T09:01:54Z</time>
      </trkpt>
      <trkpt lat="42.51719" lon="-0.16012">
        <ele>1502.3</ele>
        <time>2017-08-13T09:01:56Z</time>
      </trkpt>
      <trkpt lat="42.51718" lon="-0.16017">
        <ele>1504.1</ele>
        <time>2017-08-13T09:01:58Z</time>
      </trkpt>
      <trkpt lat="42.51716" lon="-0.16024">
        <ele>1504.3</ele>
        <time>2017-08-13T09:02:00Z</time>
      </trkpt>
      <trkpt lat="42.51715" lon="-0.1603">
        <ele>1506.2</ele>
        <time>2017-08-13T09:02:02Z</time>
      </trkpt>
      <trkpt lat="42.51714" lon="-0.16037">
        <ele>1506.4</ele>
        <time>2017-08-13T09:02:04Z</time>
      </trkpt>
      <trkpt lat="42.51714" lon="-0.16043">
        <ele>1506.9</ele>
        <time>2017-08-13T09:02:06Z</time>
      </trkpt>
      <trkpt lat="42.51713" lon="-0.16049">
        <ele>1507.3</ele>
        <time>2017-08-13T09:02:08Z</time>
      </trkpt>
      <trkpt lat="42.51713" lon="-0.16055">
        <ele>1507.8</ele>
        <time>2017-08-13T09:02:10Z</time>
      </trkpt>
      <trkpt lat="42.51713" lon="-0.16061">
        <ele>1509.1</ele>
        <time>2017-08-13T09:02:12Z</time>
      </trkpt>
      <trkpt lat="42.51714" lon="-0.16067">
        <ele>1510</ele>
        <time>2017-08-13T09:02:14Z</time>
      </trkpt>
      <trkpt lat="42.51714" lon="-0.16072">
        <ele>1511.9</ele>
        <time>2017-08-13T09:02:16Z</time>
      </trkpt>
      <trkpt lat="42.51715" lon="-0.16077">
        <ele>1512.8</ele>
        <time>2017-08-13T09:02:18Z</time>
      </trkpt>
      <trkpt lat="42.51715" lon="-0.16083">
        <ele>1513.6</ele>
        <time>2017-08-13T09:02:20Z</time>
      </trkpt>
      <trkpt lat="42.51715" lon="-0.16088">
        <ele>1514.2</ele>
        <time>2017-08-13T09:02:22Z</time>
      </trkpt>
      <trkpt lat="42.51713" lon="-0.16094">
        <ele>1515.1</ele>
        <time>2017-08-13T09:02:24Z</time>
      </trkpt>
      <trkpt lat="42.51712" lon="-0.16098">
        <ele>1517.1</ele>
        <time>2017-08-13T09:02:26Z</time>
      </trkpt>
      <trkpt lat="42.51711" lon="-0.16103">
        <ele>1517.5</ele>
        <time>2017-08-13T09:02:28Z</time>
      </trkpt>
      <trkpt lat="42.51711" lon="-0.16107">
        <ele>1517.7</ele>
        <time>2017-08-13T09:02:30Z</time>
      </trkpt>
      <trkpt lat="42.51711" lon="-0.16112">
        <ele>1518</ele>
        <time>2017-08-13T09:02:32Z</time>
      </trkpt>
      <trkpt lat="42.51712" lon="-0.16116">
        <ele>1518.3</ele>
        <time>2017-08-13T09:02:34Z</time>
      </trkpt>
      <trkpt lat="42.51713" lon="-0.16119">
        <ele>1518.6</ele>
        <time>2017-08-13T09:02:36Z</time>
      </trkpt>
      <trkpt lat="42.51713" lon="-0.16123">
        <ele>1516.9</ele>
        <time>2017-08-13T09:02:38Z</time>
      </trkpt>
      <trkpt lat="42.51713" lon="-0.16128">
        <ele>1517.6</ele>
        <time>2017-08-13T09:02:41Z</time>
      </trkpt>
      <trkpt lat="42.51712" lon="-0.16133">
        <ele>1519.3</ele>
        <time>2017-08-13T09:02:44Z</time>
      </trkpt>
      <trkpt lat="42.51712" lon="-0.16137">
        <ele>1519.3</ele>
        <time>2017-08-13T09:02:47Z</time>
      </trkpt>
      <trkpt lat="42.51713" lon="-0.16142">
        <ele>1517.9</ele>
        <time>2017-08-13T09:02:50Z</time>
      </trkpt>
      <trkpt lat="42.51713" lon="-0.16146">
        <ele>1517.9</ele>
        <time>2017-08-13T09:02:53Z</time>
      </trkpt>
      <trkpt lat="42.51714" lon="-0.16151">
        <ele>1517.8</ele>
        <time>2017-08-13T09:02:57Z</time>
      </trkpt>
      <trkpt lat="42.51715" lon="-0.16156">
        <ele>1517.8</ele>
        <time>2017-08-13T09:03:00Z</time>
      </trkpt>
      <trkpt lat="42.51714" lon="-0.1616">
        <ele>1517.6</ele>
        <time>2017-08-13T09:03:03Z</time>
      </trkpt>
      <trkpt lat="42.51714" lon="-0.16165">
        <ele>1517.5</ele>
        <time>2017-08-13T09:03:06Z</time>
      </trkpt>
      <trkpt lat="42.51713" lon="-0.16168">
        <ele>1517.3</ele>
        <time>2017-08-13T09:03:09Z</time>
      </trkpt>
      <trkpt lat="42.51712" lon="-0.16172">
        <ele>1518.9</ele>
        <time>2017-08-13T09:03:11Z</time>
      </trkpt>
      <trkpt lat="42.51712" lon="-0.16177">
        <ele>1518.9</ele>
        <time>2017-08-13T09:03:14Z</time>
      </trkpt>
      <trkpt lat="42.51712" lon="-0.16183">
        <ele>1519</ele>
        <time>2017-08-13T09:03:17Z</time>
      </trkpt>
      <trkpt lat="42.5171" lon="-0.16188">
        <ele>1519.1</ele>
        <time>2017-08-13T09:03:20Z</time>
      </trkpt>
      <trkpt lat="42.5171" lon="-0.16191">
        <ele>1519.4</ele>
        <time>2017-08-13T09:03:22Z</time>
      </trkpt>
      <trkpt lat="42.51709" lon="-0.16195">
        <ele>1521.6</ele>
        <time>2017-08-13T09:03:24Z</time>
      </trkpt>
      <trkpt lat="42.51709" lon="-0.16199">
        <ele>1522.1</ele>
        <time>2017-08-13T09:03:28Z</time>
      </trkpt>
      <trkpt lat="42.51709" lon="-0.16203">
        <ele>1522.8</ele>
        <time>2017-08-13T09:03:31Z</time>
      </trkpt>
      <trkpt lat="42.5171" lon="-0.16207">
        <ele>1521.6</ele>
        <time>2017-08-13T09:03:34Z</time>
      </trkpt>
      <trkpt lat="42.51711" lon="-0.16211">
        <ele>1522.4</ele>
        <time>2017-08-13T09:03:36Z</time>
      </trkpt>
      <trkpt lat="42.51712" lon="-0.16215">
        <ele>1523.1</ele>
        <time>2017-08-13T09:03:38Z</time>
      </trkpt>
      <trkpt lat="42.51713" lon="-0.1622">
        <ele>1523.7</ele>
        <time>2017-08-13T09:03:40Z</time>
      </trkpt>
      <trkpt lat="42.51712" lon="-0.16224">
        <ele>1524.3</ele>
        <time>2017-08-13T09:03:44Z</time>
      </trkpt>
      <trkpt lat="42.51712" lon="-0.16229">
        <ele>1524.8</ele>
        <time>2017-08-13T09:03:47Z</time>
      </trkpt>
      <trkpt lat="42.51711" lon="-0.16233">
        <ele>1525.1</ele>
        <time>2017-08-13T09:03:49Z</time>
      </trkpt>
      <trkpt lat="42.51711" lon="-0.16237">
        <ele>1525.4</ele>
        <time>2017-08-13T09:03:51Z</time>
      </trkpt>
      <trkpt lat="42.5171" lon="-0.16241">
        <ele>1525.5</ele>
        <time>2017-08-13T09:03:53Z</time>
      </trkpt>
      <trkpt lat="42.5171" lon="-0.16245">
        <ele>1525.7</ele>
        <time>2017-08-13T09:03:55Z</time>
      </trkpt>
      <trkpt lat="42.51709" lon="-0.1625">
        <ele>1527.5</ele>
        <time>2017-08-13T09:03:57Z</time>
      </trkpt>
      <trkpt lat="42.51708" lon="-0.16253">
        <ele>1527.6</ele>
        <time>2017-08-13T09:03:59Z</time>
      </trkpt>
      <trkpt lat="42.51708" lon="-0.16259">
        <ele>1527.7</ele>
        <time>2017-08-13T09:04:02Z</time>
      </trkpt>
      <trkpt lat="42.51708" lon="-0.16263">
        <ele>1527.7</ele>
        <time>2017-08-13T09:04:04Z</time>
      </trkpt>
      <trkpt lat="42.51708" lon="-0.16267">
        <ele>1527.8</ele>
        <time>2017-08-13T09:04:06Z</time>
      </trkpt>
      <trkpt lat="42.51708" lon="-0.16271">
        <ele>1527.8</ele>
        <time>2017-08-13T09:04:09Z</time>
      </trkpt>
      <trkpt lat="42.51708" lon="-0.16276">
        <ele>1527.8</ele>
        <time>2017-08-13T09:04:11Z</time>
      </trkpt>
      <trkpt lat="42.51708" lon="-0.16281">
        <ele>1527.7</ele>
        <time>2017-08-13T09:04:13Z</time>
      </trkpt>
      <trkpt lat="42.51707" lon="-0.16286">
        <ele>1527.4</ele>
        <time>2017-08-13T09:04:15Z</time>
      </trkpt>
      <trkpt lat="42.51706" lon="-0.16291">
        <ele>1529.4</ele>
        <time>2017-08-13T09:04:17Z</time>
      </trkpt>
      <trkpt lat="42.51705" lon="-0.16296">
        <ele>1529.3</ele>
        <time>2017-08-13T09:04:19Z</time>
      </trkpt>
      <trkpt lat="42.51705" lon="-0.16301">
        <ele>1529.3</ele>
        <time>2017-08-13T09:04:21Z</time>
      </trkpt>
      <trkpt lat="42.51704" lon="-0.16307">
        <ele>1529.3</ele>
        <time>2017-08-13T09:04:23Z</time>
      </trkpt>
      <trkpt lat="42.51704" lon="-0.16313">
        <ele>1529.5</ele>
        <time>2017-08-13T09:04:25Z</time>
      </trkpt>
      <trkpt lat="42.51703" lon="-0.16318">
        <ele>1531.5</ele>
        <time>2017-08-13T09:04:27Z</time>
      </trkpt>
      <trkpt lat="42.51702" lon="-0.16323">
        <ele>1531.5</ele>
        <time>2017-08-13T09:04:29Z</time>
      </trkpt>
      <trkpt lat="42.51701" lon="-0.16327">
        <ele>1531.4</ele>
        <time>2017-08-13T09:04:31Z</time>
      </trkpt>
      <trkpt lat="42.51699" lon="-0.16332">
        <ele>1532.8</ele>
        <time>2017-08-13T09:04:33Z</time>
      </trkpt>
      <trkpt lat="42.51698" lon="-0.16337">
        <ele>1532.4</ele>
        <time>2017-08-13T09:04:35Z</time>
      </trkpt>
      <trkpt lat="42.51696" lon="-0.16342">
        <ele>1532.5</ele>
        <time>2017-08-13T09:04:37Z</time>
      </trkpt>
      <trkpt lat="42.51694" lon="-0.16348">
        <ele>1531.7</ele>
        <time>2017-08-13T09:04:39Z</time>
      </trkpt>
      <trkpt lat="42.51693" lon="-0.16352">
        <ele>1532.1</ele>
        <time>2017-08-13T09:04:41Z</time>
      </trkpt>
      <trkpt lat="42.51692" lon="-0.16358">
        <ele>1531.5</ele>
        <time>2017-08-13T09:04:43Z</time>
      </trkpt>
      <trkpt lat="42.51692" lon="-0.16362">
        <ele>1531</ele>
        <time>2017-08-13T09:04:45Z</time>
      </trkpt>
      <trkpt lat="42.51693" lon="-0.16366">
        <ele>1530.6</ele>
        <time>2017-08-13T09:04:47Z</time>
      </trkpt>
      <trkpt lat="42.51694" lon="-0.16371">
        <ele>1529.4</ele>
        <time>2017-08-13T09:04:49Z</time>
      </trkpt>
      <trkpt lat="42.51695" lon="-0.16376">
        <ele>1529.2</ele>
        <time>2017-08-13T09:04:51Z</time>
      </trkpt>
      <trkpt lat="42.51694" lon="-0.16381">
        <ele>1529.1</ele>
        <time>2017-08-13T09:04:53Z</time>
      </trkpt>
      <trkpt lat="42.51693" lon="-0.16386">
        <ele>1529.9</ele>
        <time>2017-08-13T09:04:55Z</time>
      </trkpt>
      <trkpt lat="42.51692" lon="-0.16391">
        <ele>1529.8</ele>
        <time>2017-08-13T09:04:57Z</time>
      </trkpt>
      <trkpt lat="42.5169" lon="-0.16395">
        <ele>1530.5</ele>
        <time>2017-08-13T09:04:59Z</time>
      </trkpt>
      <trkpt lat="42.51687" lon="-0.16399">
        <ele>1530.3</ele>
        <time>2017-08-13T09:05:01Z</time>
      </trkpt>
      <trkpt lat="42.51685" lon="-0.16404">
        <ele>1530.8</ele>
        <time>2017-08-13T09:05:03Z</time>
      </trkpt>
      <trkpt lat="42.51681" lon="-0.16409">
        <ele>1531.3</ele>
        <time>2017-08-13T09:05:05Z</time>
      </trkpt>
      <trkpt lat="42.51678" lon="-0.16413">
        <ele>1532.6</ele>
        <time>2017-08-13T09:05:07Z</time>
      </trkpt>
      <trkpt lat="42.51675" lon="-0.16417">
        <ele>1532.4</ele>
        <time>2017-08-13T09:05:09Z</time>
      </trkpt>
      <trkpt lat="42.51672" lon="-0.16421">
        <ele>1532.9</ele>
        <time>2017-08-13T09:05:11Z</time>
      </trkpt>
      <trkpt lat="42.5167" lon="-0.16427">
        <ele>1533.3</ele>
        <time>2017-08-13T09:05:13Z</time>
      </trkpt>
      <trkpt lat="42.51669" lon="-0.16433">
        <ele>1533</ele>
        <time>2017-08-13T09:05:15Z</time>
      </trkpt>
      <trkpt lat="42.51667" lon="-0.16439">
        <ele>1533.3</ele>
        <time>2017-08-13T09:05:17Z</time>
      </trkpt>
      <trkpt lat="42.51664" lon="-0.16444">
        <ele>1533.8</ele>
        <time>2017-08-13T09:05:19Z</time>
      </trkpt>
      <trkpt lat="42.5166" lon="-0.16449">
        <ele>1534.4</ele>
        <time>2017-08-13T09:05:21Z</time>
      </trkpt>
      <trkpt lat="42.51656" lon="-0.16453">
        <ele>1535</ele>
        <time>2017-08-13T09:05:23Z</time>
      </trkpt>
      <trkpt lat="42.51652" lon="-0.16458">
        <ele>1536.4</ele>
        <time>2017-08-13T09:05:25Z</time>
      </trkpt>
      <trkpt lat="42.51649" lon="-0.16463">
        <ele>1537.1</ele>
        <time>2017-08-13T09:05:27Z</time>
      </trkpt>
      <trkpt lat="42.51646" lon="-0.16467">
        <ele>1537</ele>
        <time>2017-08-13T09:05:29Z</time>
      </trkpt>
      <trkpt lat="42.51645" lon="-0.16472">
        <ele>1537.7</ele>
        <time>2017-08-13T09:05:31Z</time>
      </trkpt>
      <trkpt lat="42.51643" lon="-0.16477">
        <ele>1537.6</ele>
        <time>2017-08-13T09:05:33Z</time>
      </trkpt>
      <trkpt lat="42.51642" lon="-0.16481">
        <ele>1538.3</ele>
        <time>2017-08-13T09:05:35Z</time>
      </trkpt>
      <trkpt lat="42.51642" lon="-0.16486">
        <ele>1538.2</ele>
        <time>2017-08-13T09:05:37Z</time>
      </trkpt>
      <trkpt lat="42.5164" lon="-0.16491">
        <ele>1538</ele>
        <time>2017-08-13T09:05:39Z</time>
      </trkpt>
      <trkpt lat="42.51638" lon="-0.16497">
        <ele>1538.5</ele>
        <time>2017-08-13T09:05:41Z</time>
      </trkpt>
      <trkpt lat="42.51637" lon="-0.16502">
        <ele>1539.2</ele>
        <time>2017-08-13T09:05:43Z</time>
      </trkpt>
      <trkpt lat="42.51636" lon="-0.16506">
        <ele>1538.9</ele>
        <time>2017-08-13T09:05:44Z</time>
      </trkpt>
      <trkpt lat="42.51635" lon="-0.1651">
        <ele>1538.6</ele>
        <time>2017-08-13T09:05:45Z</time>
      </trkpt>
      <trkpt lat="42.51634" lon="-0.16514">
        <ele>1538.3</ele>
        <time>2017-08-13T09:05:46Z</time>
      </trkpt>
      <trkpt lat="42.51632" lon="-0.16519">
        <ele>1539.2</ele>
        <time>2017-08-13T09:05:47Z</time>
      </trkpt>
      <trkpt lat="42.51631" lon="-0.16523">
        <ele>1539</ele>
        <time>2017-08-13T09:05:48Z</time>
      </trkpt>
      <trkpt lat="42.5163" lon="-0.16528">
        <ele>1540.3</ele>
        <time>2017-08-13T09:05:49Z</time>
      </trkpt>
      <trkpt lat="42.51628" lon="-0.16532">
        <ele>1540.2</ele>
        <time>2017-08-13T09:05:50Z</time>
      </trkpt>
      <trkpt lat="42.51627" lon="-0.16535">
        <ele>1541.7</ele>
        <time>2017-08-13T09:05:51Z</time>
      </trkpt>
      <trkpt lat="42.51626" lon="-0.16539">
        <ele>1541.7</ele>
        <time>2017-08-13T09:05:52Z</time>
      </trkpt>
      <trkpt lat="42.51625" lon="-0.16543">
        <ele>1541.6</ele>
        <time>2017-08-13T09:05:53Z</time>
      </trkpt>
      <trkpt lat="42.51625" lon="-0.16547">
        <ele>1541.5</ele>
        <time>2017-08-13T09:05:54Z</time>
      </trkpt>
      <trkpt lat="42.51623" lon="-0.16551">
        <ele>1542.7</ele>
        <time>2017-08-13T09:05:55Z</time>
      </trkpt>
      <trkpt lat="42.51621" lon="-0.16554">
        <ele>1542.4</ele>
        <time>2017-08-13T09:05:56Z</time>
      </trkpt>
      <trkpt lat="42.51619" lon="-0.16558">
        <ele>1543.3</ele>
        <time>2017-08-13T09:05:57Z</time>
      </trkpt>
      <trkpt lat="42.51617" lon="-0.16562">
        <ele>1543.8</ele>
        <time>2017-08-13T09:05:58Z</time>
      </trkpt>
      <trkpt lat="42.51616" lon="-0.16566">
        <ele>1543.3</ele>
        <time>2017-08-13T09:05:59Z</time>
      </trkpt>
      <trkpt lat="42.51614" lon="-0.16569">
        <ele>1544.1</ele>
        <time>2017-08-13T09:06:00Z</time>
      </trkpt>
      <trkpt lat="42.51612" lon="-0.16575">
        <ele>1542.8</ele>
        <time>2017-08-13T09:06:02Z</time>
      </trkpt>
      <trkpt lat="42.5161" lon="-0.16578">
        <ele>1543.5</ele>
        <time>2017-08-13T09:06:03Z</time>
      </trkpt>
      <trkpt lat="42.51608" lon="-0.16581">
        <ele>1543.4</ele>
        <time>2017-08-13T09:06:04Z</time>
      </trkpt>
      <trkpt lat="42.51605" lon="-0.16583">
        <ele>1542.8</ele>
        <time>2017-08-13T09:06:05Z</time>
      </trkpt>
      <trkpt lat="42.51603" lon="-0.16586">
        <ele>1543.3</ele>
        <time>2017-08-13T09:06:06Z</time>
      </trkpt>
      <trkpt lat="42.516" lon="-0.16591">
        <ele>1543.2</ele>
        <time>2017-08-13T09:06:08Z</time>
      </trkpt>
      <trkpt lat="42.51598" lon="-0.16593">
        <ele>1542.8</ele>
        <time>2017-08-13T09:06:09Z</time>
      </trkpt>
      <trkpt lat="42.51595" lon="-0.16595">
        <ele>1543.1</ele>
        <time>2017-08-13T09:06:10Z</time>
      </trkpt>
      <trkpt lat="42.51592" lon="-0.16596">
        <ele>1542.5</ele>
        <time>2017-08-13T09:06:11Z</time>
      </trkpt>
      <trkpt lat="42.51589" lon="-0.16598">
        <ele>1542.5</ele>
        <time>2017-08-13T09:06:12Z</time>
      </trkpt>
      <trkpt lat="42.51586" lon="-0.166">
        <ele>1541.7</ele>
        <time>2017-08-13T09:06:13Z</time>
      </trkpt>
      <trkpt lat="42.51582" lon="-0.16602">
        <ele>1541.7</ele>
        <time>2017-08-13T09:06:14Z</time>
      </trkpt>
      <trkpt lat="42.51579" lon="-0.16603">
        <ele>1541.6</ele>
        <time>2017-08-13T09:06:15Z</time>
      </trkpt>
      <trkpt lat="42.51576" lon="-0.16603">
        <ele>1541.4</ele>
        <time>2017-08-13T09:06:16Z</time>
      </trkpt>
      <trkpt lat="42.51572" lon="-0.16603">
        <ele>1541.2</ele>
        <time>2017-08-13T09:06:17Z</time>
      </trkpt>
      <trkpt lat="42.51569" lon="-0.16602">
        <ele>1541</ele>
        <time>2017-08-13T09:06:18Z</time>
      </trkpt>
      <trkpt lat="42.51567" lon="-0.166">
        <ele>1540.6</ele>
        <time>2017-08-13T09:06:19Z</time>
      </trkpt>
      <trkpt lat="42.51564" lon="-0.16598">
        <ele>1541.6</ele>
        <time>2017-08-13T09:06:20Z</time>
      </trkpt>
      <trkpt lat="42.51562" lon="-0.16596">
        <ele>1541.2</ele>
        <time>2017-08-13T09:06:21Z</time>
      </trkpt>
      <trkpt lat="42.5156" lon="-0.16593">
        <ele>1541.7</ele>
        <time>2017-08-13T09:06:22Z</time>
      </trkpt>
      <trkpt lat="42.51558" lon="-0.1659">
        <ele>1542.7</ele>
        <time>2017-08-13T09:06:23Z</time>
      </trkpt>
      <trkpt lat="42.51557" lon="-0.16587">
        <ele>1543.1</ele>
        <time>2017-08-13T09:06:24Z</time>
      </trkpt>
      <trkpt lat="42.51556" lon="-0.16583">
        <ele>1543.1</ele>
        <time>2017-08-13T09:06:25Z</time>
      </trkpt>
      <trkpt lat="42.51556" lon="-0.16579">
        <ele>1543.9</ele>
        <time>2017-08-13T09:06:26Z</time>
      </trkpt>
      <trkpt lat="42.51553" lon="-0.16573">
        <ele>1544.8</ele>
        <time>2017-08-13T09:06:28Z</time>
      </trkpt>
      <trkpt lat="42.51551" lon="-0.16567">
        <ele>1544.9</ele>
        <time>2017-08-13T09:06:30Z</time>
      </trkpt>
      <trkpt lat="42.51549" lon="-0.16563">
        <ele>1545.6</ele>
        <time>2017-08-13T09:06:31Z</time>
      </trkpt>
      <trkpt lat="42.51548" lon="-0.1656">
        <ele>1545.5</ele>
        <time>2017-08-13T09:06:32Z</time>
      </trkpt>
      <trkpt lat="42.51546" lon="-0.16557">
        <ele>1545.5</ele>
        <time>2017-08-13T09:06:33Z</time>
      </trkpt>
      <trkpt lat="42.51544" lon="-0.16554">
        <ele>1545.2</ele>
        <time>2017-08-13T09:06:34Z</time>
      </trkpt>
      <trkpt lat="42.51542" lon="-0.16551">
        <ele>1545.9</ele>
        <time>2017-08-13T09:06:35Z</time>
      </trkpt>
      <trkpt lat="42.5154" lon="-0.16548">
        <ele>1545.1</ele>
        <time>2017-08-13T09:06:36Z</time>
      </trkpt>
      <trkpt lat="42.51538" lon="-0.16545">
        <ele>1545.1</ele>
        <time>2017-08-13T09:06:37Z</time>
      </trkpt>
      <trkpt lat="42.51536" lon="-0.16542">
        <ele>1545.9</ele>
        <time>2017-08-13T09:06:38Z</time>
      </trkpt>
      <trkpt lat="42.51534" lon="-0.16539">
        <ele>1546</ele>
        <time>2017-08-13T09:06:39Z</time>
      </trkpt>
      <trkpt lat="42.51532" lon="-0.16537">
        <ele>1545.2</ele>
        <time>2017-08-13T09:06:40Z</time>
      </trkpt>
      <trkpt lat="42.51529" lon="-0.16534">
        <ele>1546</ele>
        <time>2017-08-13T09:06:41Z</time>
      </trkpt>
      <trkpt lat="42.51527" lon="-0.16531">
        <ele>1545.3</ele>
        <time>2017-08-13T09:06:42Z</time>
      </trkpt>
      <trkpt lat="42.51525" lon="-0.16529">
        <ele>1545.4</ele>
        <time>2017-08-13T09:06:43Z</time>
      </trkpt>
      <trkpt lat="42.51522" lon="-0.16527">
        <ele>1544.8</ele>
        <time>2017-08-13T09:06:44Z</time>
      </trkpt>
      <trkpt lat="42.5152" lon="-0.16526">
        <ele>1545</ele>
        <time>2017-08-13T09:06:45Z</time>
      </trkpt>
      <trkpt lat="42.51517" lon="-0.16525">
        <ele>1545</ele>
        <time>2017-08-13T09:06:46Z</time>
      </trkpt>
      <trkpt lat="42.51514" lon="-0.16525">
        <ele>1544.6</ele>
        <time>2017-08-13T09:06:47Z</time>
      </trkpt>
      <trkpt lat="42.5151" lon="-0.16525">
        <ele>1544</ele>
        <time>2017-08-13T09:06:48Z</time>
      </trkpt>
      <trkpt lat="42.51506" lon="-0.16526">
        <ele>1543.9</ele>
        <time>2017-08-13T09:06:49Z</time>
      </trkpt>
      <trkpt lat="42.51502" lon="-0.16527">
        <ele>1543</ele>
        <time>2017-08-13T09:06:50Z</time>
      </trkpt>
      <trkpt lat="42.51499" lon="-0.16528">
        <ele>1543.1</ele>
        <time>2017-08-13T09:06:51Z</time>
      </trkpt>
      <trkpt lat="42.51495" lon="-0.16529">
        <ele>1543.2</ele>
        <time>2017-08-13T09:06:52Z</time>
      </trkpt>
      <trkpt lat="42.51492" lon="-0.1653">
        <ele>1543.4</ele>
        <time>2017-08-13T09:06:53Z</time>
      </trkpt>
      <trkpt lat="42.51489" lon="-0.16531">
        <ele>1543</ele>
        <time>2017-08-13T09:06:54Z</time>
      </trkpt>
      <trkpt lat="42.51486" lon="-0.16533">
        <ele>1543.4</ele>
        <time>2017-08-13T09:06:55Z</time>
      </trkpt>
      <trkpt lat="42.51483" lon="-0.16534">
        <ele>1543.8</ele>
        <time>2017-08-13T09:06:56Z</time>
      </trkpt>
      <trkpt lat="42.51479" lon="-0.16537">
        <ele>1543.6</ele>
        <time>2017-08-13T09:06:57Z</time>
      </trkpt>
      <trkpt lat="42.51476" lon="-0.16539">
        <ele>1544.1</ele>
        <time>2017-08-13T09:06:58Z</time>
      </trkpt>
      <trkpt lat="42.51473" lon="-0.16541">
        <ele>1543.8</ele>
        <time>2017-08-13T09:06:59Z</time>
      </trkpt>
      <trkpt lat="42.5147" lon="-0.16544">
        <ele>1544.3</ele>
        <time>2017-08-13T09:07:00Z</time>
      </trkpt>
      <trkpt lat="42.51466" lon="-0.16546">
        <ele>1544.5</ele>
        <time>2017-08-13T09:07:01Z</time>
      </trkpt>
      <trkpt lat="42.51462" lon="-0.16549">
        <ele>1544.2</ele>
        <time>2017-08-13T09:07:02Z</time>
      </trkpt>
      <trkpt lat="42.51458" lon="-0.16551">
        <ele>1544.8</ele>
        <time>2017-08-13T09:07:03Z</time>
      </trkpt>
      <trkpt lat="42.51454" lon="-0.16553">
        <ele>1544.6</ele>
        <time>2017-08-13T09:07:04Z</time>
      </trkpt>
      <trkpt lat="42.5145" lon="-0.16554">
        <ele>1545.7</ele>
        <time>2017-08-13T09:07:05Z</time>
      </trkpt>
      <trkpt lat="42.51446" lon="-0.16556">
        <ele>1546.3</ele>
        <time>2017-08-13T09:07:06Z</time>
      </trkpt>
      <trkpt lat="42.51442" lon="-0.16557">
        <ele>1546</ele>
        <time>2017-08-13T09:07:07Z</time>
      </trkpt>
      <trkpt lat="42.51439" lon="-0.16558">
        <ele>1546.5</ele>
        <time>2017-08-13T09:07:08Z</time>
      </trkpt>
      <trkpt lat="42.51435" lon="-0.16559">
        <ele>1547.1</ele>
        <time>2017-08-13T09:07:09Z</time>
      </trkpt>
      <trkpt lat="42.51432" lon="-0.1656">
        <ele>1547.6</ele>
        <time>2017-08-13T09:07:10Z</time>
      </trkpt>
      <trkpt lat="42.51428" lon="-0.16561">
        <ele>1548.5</ele>
        <time>2017-08-13T09:07:11Z</time>
      </trkpt>
      <trkpt lat="42.51424" lon="-0.16562">
        <ele>1547.9</ele>
        <time>2017-08-13T09:07:12Z</time>
      </trkpt>
      <trkpt lat="42.51421" lon="-0.16563">
        <ele>1548.3</ele>
        <time>2017-08-13T09:07:13Z</time>
      </trkpt>
      <trkpt lat="42.51418" lon="-0.16564">
        <ele>1548.6</ele>
        <time>2017-08-13T09:07:14Z</time>
      </trkpt>
      <trkpt lat="42.51416" lon="-0.16565">
        <ele>1548.6</ele>
        <time>2017-08-13T09:07:15Z</time>
      </trkpt>
      <trkpt lat="42.51413" lon="-0.16566">
        <ele>1547.9</ele>
        <time>2017-08-13T09:07:16Z</time>
      </trkpt>
      <trkpt lat="42.5141" lon="-0.16567">
        <ele>1548.2</ele>
        <time>2017-08-13T09:07:17Z</time>
      </trkpt>
      <trkpt lat="42.51407" lon="-0.16568">
        <ele>1548.5</ele>
        <time>2017-08-13T09:07:18Z</time>
      </trkpt>
      <trkpt lat="42.51405" lon="-0.16569">
        <ele>1548.9</ele>
        <time>2017-08-13T09:07:19Z</time>
      </trkpt>
      <trkpt lat="42.51402" lon="-0.16571">
        <ele>1548.1</ele>
        <time>2017-08-13T09:07:20Z</time>
      </trkpt>
      <trkpt lat="42.51399" lon="-0.16572">
        <ele>1548.4</ele>
        <time>2017-08-13T09:07:21Z</time>
      </trkpt>
      <trkpt lat="42.51396" lon="-0.16574">
        <ele>1548.6</ele>
        <time>2017-08-13T09:07:22Z</time>
      </trkpt>
      <trkpt lat="42.51394" lon="-0.16576">
        <ele>1547.5</ele>
        <time>2017-08-13T09:07:23Z</time>
      </trkpt>
      <trkpt lat="42.51391" lon="-0.16577">
        <ele>1547.7</ele>
        <time>2017-08-13T09:07:24Z</time>
      </trkpt>
      <trkpt lat="42.51389" lon="-0.16579">
        <ele>1546.9</ele>
        <time>2017-08-13T09:07:25Z</time>
      </trkpt>
      <trkpt lat="42.51386" lon="-0.16582">
        <ele>1547</ele>
        <time>2017-08-13T09:07:26Z</time>
      </trkpt>
      <trkpt lat="42.51383" lon="-0.16584">
        <ele>1546.2</ele>
        <time>2017-08-13T09:07:27Z</time>
      </trkpt>
      <trkpt lat="42.5138" lon="-0.16586">
        <ele>1546.3</ele>
        <time>2017-08-13T09:07:28Z</time>
      </trkpt>
      <trkpt lat="42.51377" lon="-0.16588">
        <ele>1545.6</ele>
        <time>2017-08-13T09:07:29Z</time>
      </trkpt>
      <trkpt lat="42.51373" lon="-0.1659">
        <ele>1545.6</ele>
        <time>2017-08-13T09:07:30Z</time>
      </trkpt>
      <trkpt lat="42.51369" lon="-0.16592">
        <ele>1544.9</ele>
        <time>2017-08-13T09:07:31Z</time>
      </trkpt>
      <trkpt lat="42.51365" lon="-0.16594">
        <ele>1544.9</ele>
        <time>2017-08-13T09:07:32Z</time>
      </trkpt>
      <trkpt lat="42.5136" lon="-0.16595">
        <ele>1544.7</ele>
        <time>2017-08-13T09:07:33Z</time>
      </trkpt>
      <trkpt lat="42.51356" lon="-0.16595">
        <ele>1544.6</ele>
        <time>2017-08-13T09:07:34Z</time>
      </trkpt>
      <trkpt lat="42.51351" lon="-0.16595">
        <ele>1544.2</ele>
        <time>2017-08-13T09:07:35Z</time>
      </trkpt>
      <trkpt lat="42.51348" lon="-0.16595">
        <ele>1543.1</ele>
        <time>2017-08-13T09:07:36Z</time>
      </trkpt>
      <trkpt lat="42.51344" lon="-0.16596">
        <ele>1542.8</ele>
        <time>2017-08-13T09:07:37Z</time>
      </trkpt>
      <trkpt lat="42.5134" lon="-0.16597">
        <ele>1542.4</ele>
        <time>2017-08-13T09:07:38Z</time>
      </trkpt>
      <trkpt lat="42.51336" lon="-0.16598">
        <ele>1542.1</ele>
        <time>2017-08-13T09:07:39Z</time>
      </trkpt>
      <trkpt lat="42.51332" lon="-0.16598">
        <ele>1541.6</ele>
        <time>2017-08-13T09:07:40Z</time>
      </trkpt>
      <trkpt lat="42.51328" lon="-0.16599">
        <ele>1541.3</ele>
        <time>2017-08-13T09:07:41Z</time>
      </trkpt>
      <trkpt lat="42.51324" lon="-0.166">
        <ele>1540</ele>
        <time>2017-08-13T09:07:42Z</time>
      </trkpt>
      <trkpt lat="42.5132" lon="-0.166">
        <ele>1539.8</ele>
        <time>2017-08-13T09:07:43Z</time>
      </trkpt>
      <trkpt lat="42.51317" lon="-0.16599">
        <ele>1540.7</ele>
        <time>2017-08-13T09:07:44Z</time>
      </trkpt>
      <trkpt lat="42.51314" lon="-0.16598">
        <ele>1540.7</ele>
        <time>2017-08-13T09:07:45Z</time>
      </trkpt>
      <trkpt lat="42.51312" lon="-0.16595">
        <ele>1540.6</ele>
        <time>2017-08-13T09:07:46Z</time>
      </trkpt>
      <trkpt lat="42.51308" lon="-0.16591">
        <ele>1541.5</ele>
        <time>2017-08-13T09:07:48Z</time>
      </trkpt>
      <trkpt lat="42.51304" lon="-0.16588">
        <ele>1542.1</ele>
        <time>2017-08-13T09:07:50Z</time>
      </trkpt>
      <trkpt lat="42.51299" lon="-0.16587">
        <ele>1542</ele>
        <time>2017-08-13T09:07:52Z</time>
      </trkpt>
      <trkpt lat="42.51296" lon="-0.16586">
        <ele>1542.6</ele>
        <time>2017-08-13T09:07:53Z</time>
      </trkpt>
      <trkpt lat="42.51293" lon="-0.16585">
        <ele>1542.5</ele>
        <time>2017-08-13T09:07:54Z</time>
      </trkpt>
      <trkpt lat="42.51289" lon="-0.16584">
        <ele>1542.4</ele>
        <time>2017-08-13T09:07:55Z</time>
      </trkpt>
      <trkpt lat="42.51286" lon="-0.16583">
        <ele>1542.3</ele>
        <time>2017-08-13T09:07:56Z</time>
      </trkpt>
      <trkpt lat="42.51283" lon="-0.16582">
        <ele>1542.9</ele>
        <time>2017-08-13T09:07:57Z</time>
      </trkpt>
      <trkpt lat="42.5128" lon="-0.16581">
        <ele>1542.8</ele>
        <time>2017-08-13T09:07:58Z</time>
      </trkpt>
      <trkpt lat="42.51277" lon="-0.16581">
        <ele>1542.7</ele>
        <time>2017-08-13T09:07:59Z</time>
      </trkpt>
      <trkpt lat="42.51274" lon="-0.1658">
        <ele>1542.6</ele>
        <time>2017-08-13T09:08:00Z</time>
      </trkpt>
      <trkpt lat="42.51269" lon="-0.16579">
        <ele>1542.3</ele>
        <time>2017-08-13T09:08:02Z</time>
      </trkpt>
      <trkpt lat="42.51264" lon="-0.16578">
        <ele>1543.1</ele>
        <time>2017-08-13T09:08:04Z</time>
      </trkpt>
      <trkpt lat="42.51259" lon="-0.16578">
        <ele>1541.9</ele>
        <time>2017-08-13T09:08:06Z</time>
      </trkpt>
      <trkpt lat="42.51254" lon="-0.1658">
        <ele>1541.8</ele>
        <time>2017-08-13T09:08:08Z</time>
      </trkpt>
      <trkpt lat="42.51251" lon="-0.16581">
        <ele>1541.8</ele>
        <time>2017-08-13T09:08:09Z</time>
      </trkpt>
      <trkpt lat="42.51248" lon="-0.16581">
        <ele>1541.8</ele>
        <time>2017-08-13T09:08:10Z</time>
      </trkpt>
      <trkpt lat="42.51245" lon="-0.16582">
        <ele>1541.8</ele>
        <time>2017-08-13T09:08:11Z</time>
      </trkpt>
      <trkpt lat="42.51242" lon="-0.16583">
        <ele>1541.1</ele>
        <time>2017-08-13T09:08:12Z</time>
      </trkpt>
      <trkpt lat="42.51238" lon="-0.16584">
        <ele>1541.4</ele>
        <time>2017-08-13T09:08:13Z</time>
      </trkpt>
      <trkpt lat="42.51234" lon="-0.16586">
        <ele>1541.6</ele>
        <time>2017-08-13T09:08:14Z</time>
      </trkpt>
      <trkpt lat="42.5123" lon="-0.16587">
        <ele>1541.1</ele>
        <time>2017-08-13T09:08:15Z</time>
      </trkpt>
      <trkpt lat="42.51226" lon="-0.16589">
        <ele>1541.3</ele>
        <time>2017-08-13T09:08:16Z</time>
      </trkpt>
      <trkpt lat="42.51222" lon="-0.1659">
        <ele>1541.6</ele>
        <time>2017-08-13T09:08:17Z</time>
      </trkpt>
      <trkpt lat="42.51218" lon="-0.16592">
        <ele>1541.1</ele>
        <time>2017-08-13T09:08:18Z</time>
      </trkpt>
      <trkpt lat="42.51214" lon="-0.16594">
        <ele>1541.3</ele>
        <time>2017-08-13T09:08:19Z</time>
      </trkpt>
      <trkpt lat="42.51211" lon="-0.16597">
        <ele>1540.8</ele>
        <time>2017-08-13T09:08:20Z</time>
      </trkpt>
      <trkpt lat="42.51208" lon="-0.16599">
        <ele>1541</ele>
        <time>2017-08-13T09:08:21Z</time>
      </trkpt>
      <trkpt lat="42.51205" lon="-0.16602">
        <ele>1540.6</ele>
        <time>2017-08-13T09:08:22Z</time>
      </trkpt>
      <trkpt lat="42.51202" lon="-0.16606">
        <ele>1540.3</ele>
        <time>2017-08-13T09:08:23Z</time>
      </trkpt>
      <trkpt lat="42.512" lon="-0.1661">
        <ele>1540.1</ele>
        <time>2017-08-13T09:08:24Z</time>
      </trkpt>
      <trkpt lat="42.51197" lon="-0.16614">
        <ele>1539.7</ele>
        <time>2017-08-13T09:08:25Z</time>
      </trkpt>
      <trkpt lat="42.51195" lon="-0.16619">
        <ele>1539.5</ele>
        <time>2017-08-13T09:08:26Z</time>
      </trkpt>
      <trkpt lat="42.51192" lon="-0.16623">
        <ele>1539.3</ele>
        <time>2017-08-13T09:08:27Z</time>
      </trkpt>
      <trkpt lat="42.51189" lon="-0.16627">
        <ele>1539</ele>
        <time>2017-08-13T09:08:28Z</time>
      </trkpt>
      <trkpt lat="42.51187" lon="-0.16631">
        <ele>1538.7</ele>
        <time>2017-08-13T09:08:29Z</time>
      </trkpt>
      <trkpt lat="42.51184" lon="-0.16635">
        <ele>1538.5</ele>
        <time>2017-08-13T09:08:30Z</time>
      </trkpt>
      <trkpt lat="42.51181" lon="-0.16639">
        <ele>1538.2</ele>
        <time>2017-08-13T09:08:31Z</time>
      </trkpt>
      <trkpt lat="42.51177" lon="-0.16643">
        <ele>1537.8</ele>
        <time>2017-08-13T09:08:32Z</time>
      </trkpt>
      <trkpt lat="42.51174" lon="-0.16646">
        <ele>1538.2</ele>
        <time>2017-08-13T09:08:33Z</time>
      </trkpt>
      <trkpt lat="42.51171" lon="-0.16649">
        <ele>1537.7</ele>
        <time>2017-08-13T09:08:34Z</time>
      </trkpt>
      <trkpt lat="42.51169" lon="-0.16652">
        <ele>1536.5</ele>
        <time>2017-08-13T09:08:35Z</time>
      </trkpt>
      <trkpt lat="42.51166" lon="-0.16656">
        <ele>1535.7</ele>
        <time>2017-08-13T09:08:36Z</time>
      </trkpt>
      <trkpt lat="42.51164" lon="-0.1666">
        <ele>1534.7</ele>
        <time>2017-08-13T09:08:37Z</time>
      </trkpt>
      <trkpt lat="42.51161" lon="-0.16664">
        <ele>1535.1</ele>
        <time>2017-08-13T09:08:38Z</time>
      </trkpt>
      <trkpt lat="42.51158" lon="-0.16667">
        <ele>1534.2</ele>
        <time>2017-08-13T09:08:39Z</time>
      </trkpt>
      <trkpt lat="42.51155" lon="-0.16671">
        <ele>1533.4</ele>
        <time>2017-08-13T09:08:40Z</time>
      </trkpt>
      <trkpt lat="42.51152" lon="-0.16675">
        <ele>1532.5</ele>
        <time>2017-08-13T09:08:41Z</time>
      </trkpt>
      <trkpt lat="42.5115" lon="-0.16679">
        <ele>1531.5</ele>
        <time>2017-08-13T09:08:42Z</time>
      </trkpt>
      <trkpt lat="42.51147" lon="-0.16683">
        <ele>1530.8</ele>
        <time>2017-08-13T09:08:43Z</time>
      </trkpt>
      <trkpt lat="42.51143" lon="-0.16687">
        <ele>1530.2</ele>
        <time>2017-08-13T09:08:44Z</time>
      </trkpt>
      <trkpt lat="42.5114" lon="-0.16691">
        <ele>1529.6</ele>
        <time>2017-08-13T09:08:45Z</time>
      </trkpt>
      <trkpt lat="42.51137" lon="-0.16695">
        <ele>1528.9</ele>
        <time>2017-08-13T09:08:46Z</time>
      </trkpt>
      <trkpt lat="42.51135" lon="-0.16698">
        <ele>1529</ele>
        <time>2017-08-13T09:08:47Z</time>
      </trkpt>
      <trkpt lat="42.51131" lon="-0.16702">
        <ele>1528.3</ele>
        <time>2017-08-13T09:08:49Z</time>
      </trkpt>
      <trkpt lat="42.51128" lon="-0.16706">
        <ele>1527.8</ele>
        <time>2017-08-13T09:08:51Z</time>
      </trkpt>
      <trkpt lat="42.51125" lon="-0.16711">
        <ele>1527.4</ele>
        <time>2017-08-13T09:08:53Z</time>
      </trkpt>
      <trkpt lat="42.51121" lon="-0.16715">
        <ele>1527.5</ele>
        <time>2017-08-13T09:08:55Z</time>
      </trkpt>
      <trkpt lat="42.51118" lon="-0.16719">
        <ele>1528.4</ele>
        <time>2017-08-13T09:08:57Z</time>
      </trkpt>
      <trkpt lat="42.51114" lon="-0.16723">
        <ele>1528.9</ele>
        <time>2017-08-13T09:08:59Z</time>
      </trkpt>
      <trkpt lat="42.5111" lon="-0.16727">
        <ele>1529.4</ele>
        <time>2017-08-13T09:09:01Z</time>
      </trkpt>
      <trkpt lat="42.51107" lon="-0.1673">
        <ele>1529.9</ele>
        <time>2017-08-13T09:09:03Z</time>
      </trkpt>
      <trkpt lat="42.51105" lon="-0.16733">
        <ele>1529.9</ele>
        <time>2017-08-13T09:09:05Z</time>
      </trkpt>
      <trkpt lat="42.51103" lon="-0.16736">
        <ele>1530.4</ele>
        <time>2017-08-13T09:09:08Z</time>
      </trkpt>
      <trkpt lat="42.51101" lon="-0.16739">
        <ele>1531</ele>
        <time>2017-08-13T09:09:10Z</time>
      </trkpt>
      <trkpt lat="42.51099" lon="-0.16742">
        <ele>1531.7</ele>
        <time>2017-08-13T09:09:12Z</time>
      </trkpt>
      <trkpt lat="42.51097" lon="-0.16745">
        <ele>1531.7</ele>
        <time>2017-08-13T09:09:14Z</time>
      </trkpt>
      <trkpt lat="42.51094" lon="-0.16747">
        <ele>1532.6</ele>
        <time>2017-08-13T09:09:16Z</time>
      </trkpt>
      <trkpt lat="42.51092" lon="-0.16749">
        <ele>1533.1</ele>
        <time>2017-08-13T09:09:18Z</time>
      </trkpt>
      <trkpt lat="42.51089" lon="-0.16748">
        <ele>1533.6</ele>
        <time>2017-08-13T09:09:24Z</time>
      </trkpt>
      <trkpt lat="42.51087" lon="-0.16745">
        <ele>1533.3</ele>
        <time>2017-08-13T09:09:27Z</time>
      </trkpt>
      <trkpt lat="42.51086" lon="-0.16741">
        <ele>1533.5</ele>
        <time>2017-08-13T09:09:30Z</time>
      </trkpt>
      <trkpt lat="42.51087" lon="-0.16737">
        <ele>1533</ele>
        <time>2017-08-13T09:09:34Z</time>
      </trkpt>
      <trkpt lat="42.5109" lon="-0.16735">
        <ele>1532.3</ele>
        <time>2017-08-13T09:09:39Z</time>
      </trkpt>
      <trkpt lat="42.51092" lon="-0.16731">
        <ele>1532.2</ele>
        <time>2017-08-13T09:09:42Z</time>
      </trkpt>
      <trkpt lat="42.51094" lon="-0.16727">
        <ele>1531.7</ele>
        <time>2017-08-13T09:09:45Z</time>
      </trkpt>
      <trkpt lat="42.51094" lon="-0.16723">
        <ele>1531.7</ele>
        <time>2017-08-13T09:09:47Z</time>
      </trkpt>
      <trkpt lat="42.51095" lon="-0.16719">
        <ele>1531.8</ele>
        <time>2017-08-13T09:09:49Z</time>
      </trkpt>
      <trkpt lat="42.51096" lon="-0.16716">
        <ele>1531.3</ele>
        <time>2017-08-13T09:09:51Z</time>
      </trkpt>
      <trkpt lat="42.51097" lon="-0.16712">
        <ele>1531.5</ele>
        <time>2017-08-13T09:09:53Z</time>
      </trkpt>
      <trkpt lat="42.51099" lon="-0.16708">
        <ele>1531.8</ele>
        <time>2017-08-13T09:09:55Z</time>
      </trkpt>
      <trkpt lat="42.511" lon="-0.16705">
        <ele>1531.7</ele>
        <time>2017-08-13T09:09:57Z</time>
      </trkpt>
      <trkpt lat="42.51102" lon="-0.16701">
        <ele>1532.1</ele>
        <time>2017-08-13T09:09:59Z</time>
      </trkpt>
      <trkpt lat="42.51103" lon="-0.16697">
        <ele>1532.1</ele>
        <time>2017-08-13T09:10:02Z</time>
      </trkpt>
      <trkpt lat="42.51103" lon="-0.16692">
        <ele>1532.7</ele>
        <time>2017-08-13T09:10:04Z</time>
      </trkpt>
      <trkpt lat="42.51102" lon="-0.16688">
        <ele>1533.8</ele>
        <time>2017-08-13T09:10:06Z</time>
      </trkpt>
      <trkpt lat="42.511" lon="-0.16684">
        <ele>1534.4</ele>
        <time>2017-08-13T09:10:08Z</time>
      </trkpt>
      <trkpt lat="42.51099" lon="-0.16681">
        <ele>1535.2</ele>
        <time>2017-08-13T09:10:10Z</time>
      </trkpt>
      <trkpt lat="42.51096" lon="-0.16678">
        <ele>1535.2</ele>
        <time>2017-08-13T09:10:13Z</time>
      </trkpt>
      <trkpt lat="42.51094" lon="-0.16674">
        <ele>1535.6</ele>
        <time>2017-08-13T09:10:16Z</time>
      </trkpt>
      <trkpt lat="42.51093" lon="-0.16669">
        <ele>1535.8</ele>
        <time>2017-08-13T09:10:19Z</time>
      </trkpt>
      <trkpt lat="42.51091" lon="-0.16665">
        <ele>1535.7</ele>
        <time>2017-08-13T09:10:22Z</time>
      </trkpt>
      <trkpt lat="42.51091" lon="-0.16661">
        <ele>1535.9</ele>
        <time>2017-08-13T09:13:03Z</time>
      </trkpt>
      <trkpt lat="42.5109" lon="-0.16664">
        <ele>1535.7</ele>
        <time>2017-08-13T09:13:18Z</time>
      </trkpt>
      <trkpt lat="42.51094" lon="-0.16654">
        <ele>1536.5</ele>
        <time>2017-08-13T09:14:38Z</time>
      </trkpt>
      <trkpt lat="42.51096" lon="-0.16651">
        <ele>1537.1</ele>
        <time>2017-08-13T09:14:45Z</time>
      </trkpt>
      <trkpt lat="42.51095" lon="-0.16656">
        <ele>1536.4</ele>
        <time>2017-08-13T09:15:30Z</time>
      </trkpt>
      <trkpt lat="42.51094" lon="-0.16659">
        <ele>1536.4</ele>
        <time>2017-08-13T09:15:33Z</time>
      </trkpt>
      <trkpt lat="42.51091" lon="-0.16664">
        <ele>1535.9</ele>
        <time>2017-08-13T09:15:44Z</time>
      </trkpt>
      <trkpt lat="42.51094" lon="-0.16663">
        <ele>1536.3</ele>
        <time>2017-08-13T09:15:52Z</time>
      </trkpt>
      <trkpt lat="42.51094" lon="-0.16659">
        <ele>1536.4</ele>
        <time>2017-08-13T09:15:59Z</time>
      </trkpt>
      <trkpt lat="42.51096" lon="-0.16653">
        <ele>1536.5</ele>
        <time>2017-08-13T09:17:34Z</time>
      </trkpt>
      <trkpt lat="42.51095" lon="-0.16664">
        <ele>1536.3</ele>
        <time>2017-08-13T09:21:28Z</time>
      </trkpt>
      <trkpt lat="42.51098" lon="-0.16666">
        <ele>1536.4</ele>
        <time>2017-08-13T09:21:33Z</time>
      </trkpt>
      <trkpt lat="42.51092" lon="-0.16663">
        <ele>1535.9</ele>
        <time>2017-08-13T09:24:14Z</time>
      </trkpt>
      <trkpt lat="42.51094" lon="-0.16658">
        <ele>1536.4</ele>
        <time>2017-08-13T09:24:18Z</time>
      </trkpt>
      <trkpt lat="42.51096" lon="-0.16655">
        <ele>1537.1</ele>
        <time>2017-08-13T09:24:21Z</time>
      </trkpt>
      <trkpt lat="42.51099" lon="-0.16655">
        <ele>1537.7</ele>
        <time>2017-08-13T09:24:24Z</time>
      </trkpt>
      <trkpt lat="42.51101" lon="-0.16658">
        <ele>1537.5</ele>
        <time>2017-08-13T09:24:26Z</time>
      </trkpt>
      <trkpt lat="42.511" lon="-0.16662">
        <ele>1537.1</ele>
        <time>2017-08-13T09:24:28Z</time>
      </trkpt>
      <trkpt lat="42.51098" lon="-0.16665">
        <ele>1536.4</ele>
        <time>2017-08-13T09:24:30Z</time>
      </trkpt>
      <trkpt lat="42.51094" lon="-0.16665">
        <ele>1536.1</ele>
        <time>2017-08-13T09:24:33Z</time>
      </trkpt>
      <trkpt lat="42.51092" lon="-0.16664">
        <ele>1535.7</ele>
        <time>2017-08-13T09:24:36Z</time>
      </trkpt>
      <trkpt lat="42.51091" lon="-0.1666">
        <ele>1535.9</ele>
        <time>2017-08-13T09:24:39Z</time>
      </trkpt>
      <trkpt lat="42.5109" lon="-0.16655">
        <ele>1535.9</ele>
        <time>2017-08-13T09:24:41Z</time>
      </trkpt>
      <trkpt lat="42.5109" lon="-0.1665">
        <ele>1535.8</ele>
        <time>2017-08-13T09:24:43Z</time>
      </trkpt>
      <trkpt lat="42.51091" lon="-0.16644">
        <ele>1535.6</ele>
        <time>2017-08-13T09:24:45Z</time>
      </trkpt>
      <trkpt lat="42.51092" lon="-0.16639">
        <ele>1535.3</ele>
        <time>2017-08-13T09:24:46Z</time>
      </trkpt>
      <trkpt lat="42.51093" lon="-0.16635">
        <ele>1535.8</ele>
        <time>2017-08-13T09:24:47Z</time>
      </trkpt>
      <trkpt lat="42.51094" lon="-0.1663">
        <ele>1535.4</ele>
        <time>2017-08-13T09:24:48Z</time>
      </trkpt>
      <trkpt lat="42.51096" lon="-0.16625">
        <ele>1535.5</ele>
        <time>2017-08-13T09:24:49Z</time>
      </trkpt>
      <trkpt lat="42.51098" lon="-0.16619">
        <ele>1535.1</ele>
        <time>2017-08-13T09:24:50Z</time>
      </trkpt>
      <trkpt lat="42.511" lon="-0.16614">
        <ele>1536.1</ele>
        <time>2017-08-13T09:24:51Z</time>
      </trkpt>
      <trkpt lat="42.51102" lon="-0.1661">
        <ele>1537.2</ele>
        <time>2017-08-13T09:24:52Z</time>
      </trkpt>
      <trkpt lat="42.51101" lon="-0.16606">
        <ele>1535.5</ele>
        <time>2017-08-13T09:24:55Z</time>
      </trkpt>
      <trkpt lat="42.51096" lon="-0.16608">
        <ele>1533.9</ele>
        <time>2017-08-13T09:24:57Z</time>
      </trkpt>
      <trkpt lat="42.51094" lon="-0.1661">
        <ele>1532.7</ele>
        <time>2017-08-13T09:24:58Z</time>
      </trkpt>
      <trkpt lat="42.51092" lon="-0.16613">
        <ele>1531.8</ele>
        <time>2017-08-13T09:24:59Z</time>
      </trkpt>
      <trkpt lat="42.51089" lon="-0.16617">
        <ele>1530.5</ele>
        <time>2017-08-13T09:25:00Z</time>
      </trkpt>
      <trkpt lat="42.51086" lon="-0.16619">
        <ele>1531.2</ele>
        <time>2017-08-13T09:25:01Z</time>
      </trkpt>
      <trkpt lat="42.51084" lon="-0.16621">
        <ele>1531</ele>
        <time>2017-08-13T09:25:02Z</time>
      </trkpt>
      <trkpt lat="42.51081" lon="-0.16623">
        <ele>1530</ele>
        <time>2017-08-13T09:25:03Z</time>
      </trkpt>
      <trkpt lat="42.51076" lon="-0.16624">
        <ele>1527.8</ele>
        <time>2017-08-13T09:25:05Z</time>
      </trkpt>
      <trkpt lat="42.51071" lon="-0.16625">
        <ele>1526.6</ele>
        <time>2017-08-13T09:25:07Z</time>
      </trkpt>
      <trkpt lat="42.51066" lon="-0.16623">
        <ele>1524</ele>
        <time>2017-08-13T09:25:09Z</time>
      </trkpt>
      <trkpt lat="42.51062" lon="-0.16621">
        <ele>1522.7</ele>
        <time>2017-08-13T09:25:11Z</time>
      </trkpt>
      <trkpt lat="42.51059" lon="-0.16625">
        <ele>1521.4</ele>
        <time>2017-08-13T09:25:14Z</time>
      </trkpt>
      <trkpt lat="42.51058" lon="-0.1663">
        <ele>1523.2</ele>
        <time>2017-08-13T09:25:16Z</time>
      </trkpt>
      <trkpt lat="42.51057" lon="-0.16635">
        <ele>1522.9</ele>
        <time>2017-08-13T09:25:18Z</time>
      </trkpt>
      <trkpt lat="42.51056" lon="-0.16641">
        <ele>1523.8</ele>
        <time>2017-08-13T09:25:20Z</time>
      </trkpt>
      <trkpt lat="42.51054" lon="-0.16646">
        <ele>1523.8</ele>
        <time>2017-08-13T09:25:22Z</time>
      </trkpt>
      <trkpt lat="42.51052" lon="-0.16649">
        <ele>1525.1</ele>
        <time>2017-08-13T09:25:24Z</time>
      </trkpt>
      <trkpt lat="42.5105" lon="-0.16652">
        <ele>1525.3</ele>
        <time>2017-08-13T09:25:26Z</time>
      </trkpt>
      <trkpt lat="42.51046" lon="-0.16655">
        <ele>1523.8</ele>
        <time>2017-08-13T09:25:28Z</time>
      </trkpt>
      <trkpt lat="42.51042" lon="-0.16656">
        <ele>1523.6</ele>
        <time>2017-08-13T09:25:30Z</time>
      </trkpt>
      <trkpt lat="42.51039" lon="-0.16657">
        <ele>1521.8</ele>
        <time>2017-08-13T09:25:32Z</time>
      </trkpt>
      <trkpt lat="42.51036" lon="-0.16659">
        <ele>1519.8</ele>
        <time>2017-08-13T09:25:34Z</time>
      </trkpt>
      <trkpt lat="42.51034" lon="-0.1666">
        <ele>1519.3</ele>
        <time>2017-08-13T09:25:36Z</time>
      </trkpt>
      <trkpt lat="42.51031" lon="-0.16661">
        <ele>1517.4</ele>
        <time>2017-08-13T09:25:38Z</time>
      </trkpt>
      <trkpt lat="42.51027" lon="-0.16663">
        <ele>1515.5</ele>
        <time>2017-08-13T09:25:40Z</time>
      </trkpt>
      <trkpt lat="42.51023" lon="-0.16664">
        <ele>1513.7</ele>
        <time>2017-08-13T09:25:42Z</time>
      </trkpt>
      <trkpt lat="42.51019" lon="-0.16665">
        <ele>1511.3</ele>
        <time>2017-08-13T09:25:44Z</time>
      </trkpt>
      <trkpt lat="42.51015" lon="-0.16666">
        <ele>1509.2</ele>
        <time>2017-08-13T09:25:46Z</time>
      </trkpt>
      <trkpt lat="42.51009" lon="-0.16668">
        <ele>1506.6</ele>
        <time>2017-08-13T09:25:48Z</time>
      </trkpt>
      <trkpt lat="42.51007" lon="-0.16671">
        <ele>1504.7</ele>
        <time>2017-08-13T09:25:49Z</time>
      </trkpt>
      <trkpt lat="42.51004" lon="-0.16673">
        <ele>1506.4</ele>
        <time>2017-08-13T09:25:50Z</time>
      </trkpt>
      <trkpt lat="42.51002" lon="-0.16676">
        <ele>1504.5</ele>
        <time>2017-08-13T09:25:51Z</time>
      </trkpt>
      <trkpt lat="42.50999" lon="-0.16679">
        <ele>1504.6</ele>
        <time>2017-08-13T09:25:52Z</time>
      </trkpt>
      <trkpt lat="42.50998" lon="-0.16683">
        <ele>1504.8</ele>
        <time>2017-08-13T09:25:53Z</time>
      </trkpt>
      <trkpt lat="42.50996" lon="-0.16686">
        <ele>1506.7</ele>
        <time>2017-08-13T09:25:54Z</time>
      </trkpt>
      <trkpt lat="42.50993" lon="-0.16689">
        <ele>1505.1</ele>
        <time>2017-08-13T09:25:55Z</time>
      </trkpt>
      <trkpt lat="42.5099" lon="-0.16692">
        <ele>1505.1</ele>
        <time>2017-08-13T09:25:56Z</time>
      </trkpt>
      <trkpt lat="42.50987" lon="-0.16695">
        <ele>1504.9</ele>
        <time>2017-08-13T09:25:57Z</time>
      </trkpt>
      <trkpt lat="42.50983" lon="-0.16698">
        <ele>1503.6</ele>
        <time>2017-08-13T09:25:58Z</time>
      </trkpt>
      <trkpt lat="42.5098" lon="-0.16701">
        <ele>1503.5</ele>
        <time>2017-08-13T09:25:59Z</time>
      </trkpt>
      <trkpt lat="42.50977" lon="-0.16703">
        <ele>1503.5</ele>
        <time>2017-08-13T09:26:00Z</time>
      </trkpt>
      <trkpt lat="42.50975" lon="-0.16705">
        <ele>1502.5</ele>
        <time>2017-08-13T09:26:01Z</time>
      </trkpt>
      <trkpt lat="42.5097" lon="-0.16707">
        <ele>1501.6</ele>
        <time>2017-08-13T09:26:03Z</time>
      </trkpt>
      <trkpt lat="42.50966" lon="-0.16709">
        <ele>1502.1</ele>
        <time>2017-08-13T09:26:05Z</time>
      </trkpt>
      <trkpt lat="42.50962" lon="-0.1671">
        <ele>1500.5</ele>
        <time>2017-08-13T09:26:07Z</time>
      </trkpt>
      <trkpt lat="42.50958" lon="-0.16711">
        <ele>1499.8</ele>
        <time>2017-08-13T09:26:09Z</time>
      </trkpt>
      <trkpt lat="42.50955" lon="-0.16713">
        <ele>1501.1</ele>
        <time>2017-08-13T09:26:11Z</time>
      </trkpt>
      <trkpt lat="42.50951" lon="-0.16717">
        <ele>1502.8</ele>
        <time>2017-08-13T09:26:13Z</time>
      </trkpt>
      <trkpt lat="42.50948" lon="-0.1672">
        <ele>1504.5</ele>
        <time>2017-08-13T09:26:15Z</time>
      </trkpt>
      <trkpt lat="42.50945" lon="-0.16723">
        <ele>1504.2</ele>
        <time>2017-08-13T09:26:17Z</time>
      </trkpt>
      <trkpt lat="42.50941" lon="-0.16724">
        <ele>1505.9</ele>
        <time>2017-08-13T09:26:19Z</time>
      </trkpt>
      <trkpt lat="42.50937" lon="-0.16724">
        <ele>1504.5</ele>
        <time>2017-08-13T09:26:21Z</time>
      </trkpt>
      <trkpt lat="42.50933" lon="-0.16725">
        <ele>1503.5</ele>
        <time>2017-08-13T09:26:23Z</time>
      </trkpt>
      <trkpt lat="42.5093" lon="-0.16726">
        <ele>1502.4</ele>
        <time>2017-08-13T09:26:25Z</time>
      </trkpt>
      <trkpt lat="42.50927" lon="-0.16727">
        <ele>1501.2</ele>
        <time>2017-08-13T09:26:27Z</time>
      </trkpt>
      <trkpt lat="42.50924" lon="-0.16728">
        <ele>1500.1</ele>
        <time>2017-08-13T09:26:29Z</time>
      </trkpt>
      <trkpt lat="42.5092" lon="-0.16729">
        <ele>1501.1</ele>
        <time>2017-08-13T09:26:31Z</time>
      </trkpt>
      <trkpt lat="42.50916" lon="-0.16731">
        <ele>1500.1</ele>
        <time>2017-08-13T09:26:33Z</time>
      </trkpt>
      <trkpt lat="42.50913" lon="-0.16732">
        <ele>1499</ele>
        <time>2017-08-13T09:26:35Z</time>
      </trkpt>
      <trkpt lat="42.50909" lon="-0.16734">
        <ele>1500.1</ele>
        <time>2017-08-13T09:26:37Z</time>
      </trkpt>
      <trkpt lat="42.50907" lon="-0.16736">
        <ele>1498.8</ele>
        <time>2017-08-13T09:26:38Z</time>
      </trkpt>
      <trkpt lat="42.50903" lon="-0.16738">
        <ele>1499.2</ele>
        <time>2017-08-13T09:26:39Z</time>
      </trkpt>
      <trkpt lat="42.50899" lon="-0.1674">
        <ele>1496.1</ele>
        <time>2017-08-13T09:26:40Z</time>
      </trkpt>
      <trkpt lat="42.50895" lon="-0.16741">
        <ele>1494.6</ele>
        <time>2017-08-13T09:26:41Z</time>
      </trkpt>
      <trkpt lat="42.50892" lon="-0.16742">
        <ele>1494.3</ele>
        <time>2017-08-13T09:26:42Z</time>
      </trkpt>
      <trkpt lat="42.50888" lon="-0.16743">
        <ele>1493</ele>
        <time>2017-08-13T09:26:44Z</time>
      </trkpt>
      <trkpt lat="42.50885" lon="-0.16743">
        <ele>1491.7</ele>
        <time>2017-08-13T09:26:46Z</time>
      </trkpt>
      <trkpt lat="42.50882" lon="-0.16743">
        <ele>1490.3</ele>
        <time>2017-08-13T09:26:48Z</time>
      </trkpt>
      <trkpt lat="42.50877" lon="-0.16741">
        <ele>1487.4</ele>
        <time>2017-08-13T09:26:50Z</time>
      </trkpt>
      <trkpt lat="42.50873" lon="-0.16742">
        <ele>1485.9</ele>
        <time>2017-08-13T09:26:52Z</time>
      </trkpt>
      <trkpt lat="42.50868" lon="-0.16746">
        <ele>1484.8</ele>
        <time>2017-08-13T09:26:54Z</time>
      </trkpt>
      <trkpt lat="42.50867" lon="-0.16749">
        <ele>1483.3</ele>
        <time>2017-08-13T09:26:55Z</time>
      </trkpt>
      <trkpt lat="42.50866" lon="-0.16754">
        <ele>1483.5</ele>
        <time>2017-08-13T09:26:57Z</time>
      </trkpt>
      <trkpt lat="42.50862" lon="-0.16749">
        <ele>1482</ele>
        <time>2017-08-13T09:27:01Z</time>
      </trkpt>
      <trkpt lat="42.5086" lon="-0.16745">
        <ele>1480.6</ele>
        <time>2017-08-13T09:27:02Z</time>
      </trkpt>
      <trkpt lat="42.50858" lon="-0.16741">
        <ele>1479</ele>
        <time>2017-08-13T09:27:03Z</time>
      </trkpt>
      <trkpt lat="42.50856" lon="-0.16736">
        <ele>1478.6</ele>
        <time>2017-08-13T09:27:04Z</time>
      </trkpt>
      <trkpt lat="42.50855" lon="-0.16733">
        <ele>1478.1</ele>
        <time>2017-08-13T09:27:05Z</time>
      </trkpt>
      <trkpt lat="42.50854" lon="-0.16727">
        <ele>1476.4</ele>
        <time>2017-08-13T09:27:07Z</time>
      </trkpt>
      <trkpt lat="42.50852" lon="-0.16723">
        <ele>1476</ele>
        <time>2017-08-13T09:27:09Z</time>
      </trkpt>
      <trkpt lat="42.50854" lon="-0.16719">
        <ele>1475.5</ele>
        <time>2017-08-13T09:27:12Z</time>
      </trkpt>
      <trkpt lat="42.50857" lon="-0.16718">
        <ele>1476.4</ele>
        <time>2017-08-13T09:27:13Z</time>
      </trkpt>
      <trkpt lat="42.50862" lon="-0.16717">
        <ele>1477.9</ele>
        <time>2017-08-13T09:27:15Z</time>
      </trkpt>
      <trkpt lat="42.50865" lon="-0.16718">
        <ele>1478.7</ele>
        <time>2017-08-13T09:27:17Z</time>
      </trkpt>
      <trkpt lat="42.50869" lon="-0.16716">
        <ele>1479.7</ele>
        <time>2017-08-13T09:27:20Z</time>
      </trkpt>
      <trkpt lat="42.50871" lon="-0.16713">
        <ele>1479.4</ele>
        <time>2017-08-13T09:27:22Z</time>
      </trkpt>
      <trkpt lat="42.50874" lon="-0.16709">
        <ele>1477.9</ele>
        <time>2017-08-13T09:27:24Z</time>
      </trkpt>
      <trkpt lat="42.50877" lon="-0.16705">
        <ele>1477.2</ele>
        <time>2017-08-13T09:27:26Z</time>
      </trkpt>
      <trkpt lat="42.50881" lon="-0.16703">
        <ele>1479</ele>
        <time>2017-08-13T09:27:28Z</time>
      </trkpt>
      <trkpt lat="42.50883" lon="-0.167">
        <ele>1477.4</ele>
        <time>2017-08-13T09:27:30Z</time>
      </trkpt>
      <trkpt lat="42.50885" lon="-0.16694">
        <ele>1476.8</ele>
        <time>2017-08-13T09:27:32Z</time>
      </trkpt>
      <trkpt lat="42.50887" lon="-0.16689">
        <ele>1475.2</ele>
        <time>2017-08-13T09:27:34Z</time>
      </trkpt>
      <trkpt lat="42.5089" lon="-0.16685">
        <ele>1474.7</ele>
        <time>2017-08-13T09:27:36Z</time>
      </trkpt>
      <trkpt lat="42.50893" lon="-0.16681">
        <ele>1475.6</ele>
        <time>2017-08-13T09:27:38Z</time>
      </trkpt>
      <trkpt lat="42.50896" lon="-0.16678">
        <ele>1474.9</ele>
        <time>2017-08-13T09:27:40Z</time>
      </trkpt>
      <trkpt lat="42.509" lon="-0.16674">
        <ele>1474.1</ele>
        <time>2017-08-13T09:27:42Z</time>
      </trkpt>
      <trkpt lat="42.50902" lon="-0.16671">
        <ele>1472.6</ele>
        <time>2017-08-13T09:27:44Z</time>
      </trkpt>
      <trkpt lat="42.50903" lon="-0.16668">
        <ele>1471.8</ele>
        <time>2017-08-13T09:28:06Z</time>
      </trkpt>
      <trkpt lat="42.50906" lon="-0.16665">
        <ele>1471.8</ele>
        <time>2017-08-13T09:28:10Z</time>
      </trkpt>
      <trkpt lat="42.50907" lon="-0.16661">
        <ele>1470.9</ele>
        <time>2017-08-13T09:28:19Z</time>
      </trkpt>
      <trkpt lat="42.5091" lon="-0.16658">
        <ele>1469.8</ele>
        <time>2017-08-13T09:28:21Z</time>
      </trkpt>
      <trkpt lat="42.50914" lon="-0.16655">
        <ele>1468.6</ele>
        <time>2017-08-13T09:28:23Z</time>
      </trkpt>
      <trkpt lat="42.50917" lon="-0.16652">
        <ele>1469.2</ele>
        <time>2017-08-13T09:28:25Z</time>
      </trkpt>
      <trkpt lat="42.5092" lon="-0.1665">
        <ele>1467.9</ele>
        <time>2017-08-13T09:28:27Z</time>
      </trkpt>
      <trkpt lat="42.50922" lon="-0.16646">
        <ele>1466.7</ele>
        <time>2017-08-13T09:28:29Z</time>
      </trkpt>
      <trkpt lat="42.50925" lon="-0.16641">
        <ele>1465</ele>
        <time>2017-08-13T09:28:31Z</time>
      </trkpt>
      <trkpt lat="42.50928" lon="-0.16635">
        <ele>1463.9</ele>
        <time>2017-08-13T09:28:33Z</time>
      </trkpt>
      <trkpt lat="42.5093" lon="-0.16632">
        <ele>1462.4</ele>
        <time>2017-08-13T09:28:34Z</time>
      </trkpt>
      <trkpt lat="42.50931" lon="-0.16629">
        <ele>1460</ele>
        <time>2017-08-13T09:28:35Z</time>
      </trkpt>
      <trkpt lat="42.50934" lon="-0.16623">
        <ele>1458.1</ele>
        <time>2017-08-13T09:28:37Z</time>
      </trkpt>
      <trkpt lat="42.50938" lon="-0.16619">
        <ele>1457</ele>
        <time>2017-08-13T09:28:39Z</time>
      </trkpt>
      <trkpt lat="42.50941" lon="-0.16615">
        <ele>1455.4</ele>
        <time>2017-08-13T09:28:41Z</time>
      </trkpt>
      <trkpt lat="42.50944" lon="-0.16612">
        <ele>1453.5</ele>
        <time>2017-08-13T09:28:42Z</time>
      </trkpt>
      <trkpt lat="42.50947" lon="-0.16607">
        <ele>1453</ele>
        <time>2017-08-13T09:28:44Z</time>
      </trkpt>
      <trkpt lat="42.50951" lon="-0.16602">
        <ele>1452</ele>
        <time>2017-08-13T09:28:46Z</time>
      </trkpt>
      <trkpt lat="42.50953" lon="-0.16596">
        <ele>1450.1</ele>
        <time>2017-08-13T09:28:48Z</time>
      </trkpt>
      <trkpt lat="42.50956" lon="-0.1659">
        <ele>1447.8</ele>
        <time>2017-08-13T09:28:50Z</time>
      </trkpt>
      <trkpt lat="42.50959" lon="-0.16585">
        <ele>1447.7</ele>
        <time>2017-08-13T09:28:52Z</time>
      </trkpt>
      <trkpt lat="42.50962" lon="-0.16581">
        <ele>1447.8</ele>
        <time>2017-08-13T09:28:53Z</time>
      </trkpt>
      <trkpt lat="42.50964" lon="-0.16578">
        <ele>1449.2</ele>
        <time>2017-08-13T09:28:54Z</time>
      </trkpt>
      <trkpt lat="42.50967" lon="-0.16573">
        <ele>1447.7</ele>
        <time>2017-08-13T09:28:56Z</time>
      </trkpt>
      <trkpt lat="42.50968" lon="-0.16569">
        <ele>1446.3</ele>
        <time>2017-08-13T09:28:58Z</time>
      </trkpt>
      <trkpt lat="42.50969" lon="-0.16563">
        <ele>1446.4</ele>
        <time>2017-08-13T09:29:00Z</time>
      </trkpt>
      <trkpt lat="42.5097" lon="-0.16559">
        <ele>1445.3</ele>
        <time>2017-08-13T09:29:01Z</time>
      </trkpt>
      <trkpt lat="42.50971" lon="-0.16554">
        <ele>1444.4</ele>
        <time>2017-08-13T09:29:02Z</time>
      </trkpt>
      <trkpt lat="42.50972" lon="-0.16549">
        <ele>1443.5</ele>
        <time>2017-08-13T09:29:03Z</time>
      </trkpt>
      <trkpt lat="42.50973" lon="-0.16545">
        <ele>1444</ele>
        <time>2017-08-13T09:29:04Z</time>
      </trkpt>
      <trkpt lat="42.50974" lon="-0.1654">
        <ele>1443.1</ele>
        <time>2017-08-13T09:29:05Z</time>
      </trkpt>
      <trkpt lat="42.50975" lon="-0.16536">
        <ele>1442.3</ele>
        <time>2017-08-13T09:29:06Z</time>
      </trkpt>
      <trkpt lat="42.50976" lon="-0.16532">
        <ele>1443.5</ele>
        <time>2017-08-13T09:29:07Z</time>
      </trkpt>
      <trkpt lat="42.50978" lon="-0.16528">
        <ele>1443.1</ele>
        <time>2017-08-13T09:29:08Z</time>
      </trkpt>
      <trkpt lat="42.50979" lon="-0.16524">
        <ele>1444.9</ele>
        <time>2017-08-13T09:29:09Z</time>
      </trkpt>
      <trkpt lat="42.5098" lon="-0.1652">
        <ele>1444.7</ele>
        <time>2017-08-13T09:29:10Z</time>
      </trkpt>
      <trkpt lat="42.50981" lon="-0.16514">
        <ele>1444</ele>
        <time>2017-08-13T09:29:12Z</time>
      </trkpt>
      <trkpt lat="42.50981" lon="-0.16507">
        <ele>1443.6</ele>
        <time>2017-08-13T09:29:14Z</time>
      </trkpt>
      <trkpt lat="42.50981" lon="-0.16503">
        <ele>1443.2</ele>
        <time>2017-08-13T09:29:15Z</time>
      </trkpt>
      <trkpt lat="42.50981" lon="-0.16499">
        <ele>1442.8</ele>
        <time>2017-08-13T09:29:16Z</time>
      </trkpt>
      <trkpt lat="42.50981" lon="-0.16494">
        <ele>1442.3</ele>
        <time>2017-08-13T09:29:17Z</time>
      </trkpt>
      <trkpt lat="42.50981" lon="-0.16488">
        <ele>1441.6</ele>
        <time>2017-08-13T09:29:18Z</time>
      </trkpt>
      <trkpt lat="42.5098" lon="-0.16483">
        <ele>1440</ele>
        <time>2017-08-13T09:29:19Z</time>
      </trkpt>
      <trkpt lat="42.50979" lon="-0.16478">
        <ele>1439.3</ele>
        <time>2017-08-13T09:29:20Z</time>
      </trkpt>
      <trkpt lat="42.50978" lon="-0.16473">
        <ele>1436</ele>
        <time>2017-08-13T09:29:21Z</time>
      </trkpt>
      <trkpt lat="42.50977" lon="-0.16468">
        <ele>1435.4</ele>
        <time>2017-08-13T09:29:22Z</time>
      </trkpt>
      <trkpt lat="42.50976" lon="-0.16464">
        <ele>1434.8</ele>
        <time>2017-08-13T09:29:23Z</time>
      </trkpt>
      <trkpt lat="42.50976" lon="-0.1646">
        <ele>1434.3</ele>
        <time>2017-08-13T09:29:24Z</time>
      </trkpt>
      <trkpt lat="42.50976" lon="-0.16454">
        <ele>1433.9</ele>
        <time>2017-08-13T09:29:26Z</time>
      </trkpt>
      <trkpt lat="42.50976" lon="-0.16449">
        <ele>1433.2</ele>
        <time>2017-08-13T09:29:28Z</time>
      </trkpt>
      <trkpt lat="42.50975" lon="-0.16445">
        <ele>1430.4</ele>
        <time>2017-08-13T09:29:29Z</time>
      </trkpt>
      <trkpt lat="42.50975" lon="-0.16441">
        <ele>1430.1</ele>
        <time>2017-08-13T09:29:30Z</time>
      </trkpt>
      <trkpt lat="42.50974" lon="-0.16436">
        <ele>1429.7</ele>
        <time>2017-08-13T09:29:31Z</time>
      </trkpt>
      <trkpt lat="42.50974" lon="-0.16431">
        <ele>1429.3</ele>
        <time>2017-08-13T09:29:32Z</time>
      </trkpt>
      <trkpt lat="42.50973" lon="-0.16426">
        <ele>1428.9</ele>
        <time>2017-08-13T09:29:33Z</time>
      </trkpt>
      <trkpt lat="42.50972" lon="-0.16421">
        <ele>1426.2</ele>
        <time>2017-08-13T09:29:34Z</time>
      </trkpt>
      <trkpt lat="42.50972" lon="-0.16417">
        <ele>1426.1</ele>
        <time>2017-08-13T09:29:35Z</time>
      </trkpt>
      <trkpt lat="42.50971" lon="-0.16413">
        <ele>1426.1</ele>
        <time>2017-08-13T09:29:36Z</time>
      </trkpt>
      <trkpt lat="42.5097" lon="-0.16407">
        <ele>1426.1</ele>
        <time>2017-08-13T09:29:38Z</time>
      </trkpt>
      <trkpt lat="42.50971" lon="-0.16401">
        <ele>1425.7</ele>
        <time>2017-08-13T09:29:40Z</time>
      </trkpt>
      <trkpt lat="42.50972" lon="-0.16396">
        <ele>1425.3</ele>
        <time>2017-08-13T09:29:41Z</time>
      </trkpt>
      <trkpt lat="42.50973" lon="-0.16391">
        <ele>1426.7</ele>
        <time>2017-08-13T09:29:42Z</time>
      </trkpt>
      <trkpt lat="42.50974" lon="-0.16387">
        <ele>1425.9</ele>
        <time>2017-08-13T09:29:43Z</time>
      </trkpt>
      <trkpt lat="42.50977" lon="-0.16381">
        <ele>1426.8</ele>
        <time>2017-08-13T09:29:45Z</time>
      </trkpt>
      <trkpt lat="42.50979" lon="-0.16378">
        <ele>1427.5</ele>
        <time>2017-08-13T09:29:46Z</time>
      </trkpt>
      <trkpt lat="42.5098" lon="-0.16374">
        <ele>1425.9</ele>
        <time>2017-08-13T09:29:47Z</time>
      </trkpt>
      <trkpt lat="42.50981" lon="-0.16371">
        <ele>1424.2</ele>
        <time>2017-08-13T09:29:48Z</time>
      </trkpt>
      <trkpt lat="42.50983" lon="-0.16365">
        <ele>1424.6</ele>
        <time>2017-08-13T09:29:50Z</time>
      </trkpt>
      <trkpt lat="42.50985" lon="-0.16359">
        <ele>1423.5</ele>
        <time>2017-08-13T09:29:52Z</time>
      </trkpt>
      <trkpt lat="42.50987" lon="-0.16354">
        <ele>1422</ele>
        <time>2017-08-13T09:29:54Z</time>
      </trkpt>
      <trkpt lat="42.50988" lon="-0.16348">
        <ele>1420.6</ele>
        <time>2017-08-13T09:29:56Z</time>
      </trkpt>
      <trkpt lat="42.50988" lon="-0.16343">
        <ele>1419.6</ele>
        <time>2017-08-13T09:29:58Z</time>
      </trkpt>
      <trkpt lat="42.50988" lon="-0.16339">
        <ele>1418.8</ele>
        <time>2017-08-13T09:30:00Z</time>
      </trkpt>
      <trkpt lat="42.50988" lon="-0.16335">
        <ele>1418.5</ele>
        <time>2017-08-13T09:30:02Z</time>
      </trkpt>
      <trkpt lat="42.50988" lon="-0.16328">
        <ele>1420.7</ele>
        <time>2017-08-13T09:30:04Z</time>
      </trkpt>
      <trkpt lat="42.50989" lon="-0.16324">
        <ele>1421.1</ele>
        <time>2017-08-13T09:30:05Z</time>
      </trkpt>
      <trkpt lat="42.50989" lon="-0.16321">
        <ele>1421.8</ele>
        <time>2017-08-13T09:30:06Z</time>
      </trkpt>
      <trkpt lat="42.50989" lon="-0.16317">
        <ele>1421.8</ele>
        <time>2017-08-13T09:30:07Z</time>
      </trkpt>
      <trkpt lat="42.50988" lon="-0.16313">
        <ele>1420.3</ele>
        <time>2017-08-13T09:30:08Z</time>
      </trkpt>
      <trkpt lat="42.50985" lon="-0.16308">
        <ele>1422</ele>
        <time>2017-08-13T09:30:10Z</time>
      </trkpt>
      <trkpt lat="42.50982" lon="-0.16301">
        <ele>1418.1</ele>
        <time>2017-08-13T09:30:12Z</time>
      </trkpt>
      <trkpt lat="42.5098" lon="-0.16298">
        <ele>1418.8</ele>
        <time>2017-08-13T09:30:13Z</time>
      </trkpt>
      <trkpt lat="42.50976" lon="-0.16293">
        <ele>1417.1</ele>
        <time>2017-08-13T09:30:15Z</time>
      </trkpt>
      <trkpt lat="42.50974" lon="-0.1629">
        <ele>1415.4</ele>
        <time>2017-08-13T09:30:16Z</time>
      </trkpt>
      <trkpt lat="42.50971" lon="-0.16288">
        <ele>1413.5</ele>
        <time>2017-08-13T09:30:17Z</time>
      </trkpt>
      <trkpt lat="42.50969" lon="-0.16285">
        <ele>1411.8</ele>
        <time>2017-08-13T09:30:18Z</time>
      </trkpt>
      <trkpt lat="42.50967" lon="-0.16283">
        <ele>1411.8</ele>
        <time>2017-08-13T09:30:19Z</time>
      </trkpt>
      <trkpt lat="42.50964" lon="-0.16279">
        <ele>1410</ele>
        <time>2017-08-13T09:30:21Z</time>
      </trkpt>
      <trkpt lat="42.50962" lon="-0.16275">
        <ele>1408</ele>
        <time>2017-08-13T09:30:23Z</time>
      </trkpt>
      <trkpt lat="42.50959" lon="-0.16271">
        <ele>1406.2</ele>
        <time>2017-08-13T09:30:25Z</time>
      </trkpt>
      <trkpt lat="42.50956" lon="-0.16266">
        <ele>1404.5</ele>
        <time>2017-08-13T09:30:27Z</time>
      </trkpt>
      <trkpt lat="42.50951" lon="-0.16262">
        <ele>1403.1</ele>
        <time>2017-08-13T09:31:34Z</time>
      </trkpt>
      <trkpt lat="42.50948" lon="-0.16259">
        <ele>1402.2</ele>
        <time>2017-08-13T09:31:36Z</time>
      </trkpt>
      <trkpt lat="42.50945" lon="-0.16254">
        <ele>1401.4</ele>
        <time>2017-08-13T09:31:38Z</time>
      </trkpt>
      <trkpt lat="42.50942" lon="-0.1625">
        <ele>1401</ele>
        <time>2017-08-13T09:31:40Z</time>
      </trkpt>
      <trkpt lat="42.50938" lon="-0.16246">
        <ele>1400.6</ele>
        <time>2017-08-13T09:31:42Z</time>
      </trkpt>
      <trkpt lat="42.50936" lon="-0.16242">
        <ele>1400.3</ele>
        <time>2017-08-13T09:31:44Z</time>
      </trkpt>
      <trkpt lat="42.50934" lon="-0.16238">
        <ele>1400.1</ele>
        <time>2017-08-13T09:31:46Z</time>
      </trkpt>
      <trkpt lat="42.50931" lon="-0.16233">
        <ele>1399.9</ele>
        <time>2017-08-13T09:31:48Z</time>
      </trkpt>
      <trkpt lat="42.50928" lon="-0.1623">
        <ele>1401.6</ele>
        <time>2017-08-13T09:31:49Z</time>
      </trkpt>
      <trkpt lat="42.50926" lon="-0.16227">
        <ele>1399.8</ele>
        <time>2017-08-13T09:31:50Z</time>
      </trkpt>
      <trkpt lat="42.50924" lon="-0.16223">
        <ele>1399.5</ele>
        <time>2017-08-13T09:31:51Z</time>
      </trkpt>
      <trkpt lat="42.50921" lon="-0.16219">
        <ele>1399.4</ele>
        <time>2017-08-13T09:31:52Z</time>
      </trkpt>
      <trkpt lat="42.50919" lon="-0.16216">
        <ele>1400.8</ele>
        <time>2017-08-13T09:31:53Z</time>
      </trkpt>
      <trkpt lat="42.50917" lon="-0.16211">
        <ele>1401</ele>
        <time>2017-08-13T09:31:55Z</time>
      </trkpt>
      <trkpt lat="42.50915" lon="-0.16208">
        <ele>1401.4</ele>
        <time>2017-08-13T09:31:58Z</time>
      </trkpt>
      <trkpt lat="42.50913" lon="-0.16206">
        <ele>1401.4</ele>
        <time>2017-08-13T09:32:00Z</time>
      </trkpt>
      <trkpt lat="42.50911" lon="-0.16204">
        <ele>1401.3</ele>
        <time>2017-08-13T09:32:01Z</time>
      </trkpt>
      <trkpt lat="42.50908" lon="-0.16201">
        <ele>1400</ele>
        <time>2017-08-13T09:32:02Z</time>
      </trkpt>
      <trkpt lat="42.50906" lon="-0.16198">
        <ele>1400.9</ele>
        <time>2017-08-13T09:32:03Z</time>
      </trkpt>
      <trkpt lat="42.50904" lon="-0.16196">
        <ele>1399.9</ele>
        <time>2017-08-13T09:32:04Z</time>
      </trkpt>
      <trkpt lat="42.509" lon="-0.16192">
        <ele>1398.5</ele>
        <time>2017-08-13T09:32:06Z</time>
      </trkpt>
      <trkpt lat="42.50895" lon="-0.16187">
        <ele>1395.5</ele>
        <time>2017-08-13T09:32:08Z</time>
      </trkpt>
      <trkpt lat="42.50893" lon="-0.16185">
        <ele>1394</ele>
        <time>2017-08-13T09:32:09Z</time>
      </trkpt>
      <trkpt lat="42.5089" lon="-0.16181">
        <ele>1393.2</ele>
        <time>2017-08-13T09:32:11Z</time>
      </trkpt>
      <trkpt lat="42.50887" lon="-0.16178">
        <ele>1393.9</ele>
        <time>2017-08-13T09:32:13Z</time>
      </trkpt>
      <trkpt lat="42.50884" lon="-0.16176">
        <ele>1392.5</ele>
        <time>2017-08-13T09:32:15Z</time>
      </trkpt>
      <trkpt lat="42.5088" lon="-0.16172">
        <ele>1389.7</ele>
        <time>2017-08-13T09:32:17Z</time>
      </trkpt>
      <trkpt lat="42.50878" lon="-0.1617">
        <ele>1390.4</ele>
        <time>2017-08-13T09:32:18Z</time>
      </trkpt>
      <trkpt lat="42.50876" lon="-0.16168">
        <ele>1388.4</ele>
        <time>2017-08-13T09:32:19Z</time>
      </trkpt>
      <trkpt lat="42.50873" lon="-0.16165">
        <ele>1386.6</ele>
        <time>2017-08-13T09:32:20Z</time>
      </trkpt>
      <trkpt lat="42.50871" lon="-0.16161">
        <ele>1387.2</ele>
        <time>2017-08-13T09:32:21Z</time>
      </trkpt>
      <trkpt lat="42.50869" lon="-0.16158">
        <ele>1384.9</ele>
        <time>2017-08-13T09:32:22Z</time>
      </trkpt>
      <trkpt lat="42.50868" lon="-0.16154">
        <ele>1385.5</ele>
        <time>2017-08-13T09:32:23Z</time>
      </trkpt>
      <trkpt lat="42.50867" lon="-0.16149">
        <ele>1384.7</ele>
        <time>2017-08-13T09:32:25Z</time>
      </trkpt>
      <trkpt lat="42.50864" lon="-0.16143">
        <ele>1383.5</ele>
        <time>2017-08-13T09:32:27Z</time>
      </trkpt>
      <trkpt lat="42.50861" lon="-0.16139">
        <ele>1382.9</ele>
        <time>2017-08-13T09:32:28Z</time>
      </trkpt>
      <trkpt lat="42.50859" lon="-0.16136">
        <ele>1384.5</ele>
        <time>2017-08-13T09:32:29Z</time>
      </trkpt>
      <trkpt lat="42.50856" lon="-0.16132">
        <ele>1384.4</ele>
        <time>2017-08-13T09:32:30Z</time>
      </trkpt>
      <trkpt lat="42.50855" lon="-0.16128">
        <ele>1382.2</ele>
        <time>2017-08-13T09:32:31Z</time>
      </trkpt>
      <trkpt lat="42.50853" lon="-0.16125">
        <ele>1384.2</ele>
        <time>2017-08-13T09:32:32Z</time>
      </trkpt>
      <trkpt lat="42.50852" lon="-0.16121">
        <ele>1383.8</ele>
        <time>2017-08-13T09:32:33Z</time>
      </trkpt>
      <trkpt lat="42.50851" lon="-0.16116">
        <ele>1385.4</ele>
        <time>2017-08-13T09:32:34Z</time>
      </trkpt>
      <trkpt lat="42.5085" lon="-0.16111">
        <ele>1386.7</ele>
        <time>2017-08-13T09:32:35Z</time>
      </trkpt>
      <trkpt lat="42.5085" lon="-0.16107">
        <ele>1387.6</ele>
        <time>2017-08-13T09:32:36Z</time>
      </trkpt>
      <trkpt lat="42.50849" lon="-0.16102">
        <ele>1388</ele>
        <time>2017-08-13T09:32:37Z</time>
      </trkpt>
      <trkpt lat="42.5085" lon="-0.16097">
        <ele>1387.2</ele>
        <time>2017-08-13T09:32:38Z</time>
      </trkpt>
      <trkpt lat="42.5085" lon="-0.16092">
        <ele>1386.3</ele>
        <time>2017-08-13T09:32:39Z</time>
      </trkpt>
      <trkpt lat="42.50851" lon="-0.16088">
        <ele>1385</ele>
        <time>2017-08-13T09:32:40Z</time>
      </trkpt>
      <trkpt lat="42.50853" lon="-0.16084">
        <ele>1385.6</ele>
        <time>2017-08-13T09:32:41Z</time>
      </trkpt>
      <trkpt lat="42.50855" lon="-0.1608">
        <ele>1385.6</ele>
        <time>2017-08-13T09:32:42Z</time>
      </trkpt>
      <trkpt lat="42.50858" lon="-0.16077">
        <ele>1385.7</ele>
        <time>2017-08-13T09:32:43Z</time>
      </trkpt>
      <trkpt lat="42.50861" lon="-0.16074">
        <ele>1385.3</ele>
        <time>2017-08-13T09:32:45Z</time>
      </trkpt>
      <trkpt lat="42.50864" lon="-0.16071">
        <ele>1384.5</ele>
        <time>2017-08-13T09:32:48Z</time>
      </trkpt>
      <trkpt lat="42.50868" lon="-0.16066">
        <ele>1383.6</ele>
        <time>2017-08-13T09:32:50Z</time>
      </trkpt>
      <trkpt lat="42.5087" lon="-0.16063">
        <ele>1382.5</ele>
        <time>2017-08-13T09:32:51Z</time>
      </trkpt>
      <trkpt lat="42.50873" lon="-0.1606">
        <ele>1384</ele>
        <time>2017-08-13T09:32:52Z</time>
      </trkpt>
      <trkpt lat="42.50876" lon="-0.16055">
        <ele>1383</ele>
        <time>2017-08-13T09:32:53Z</time>
      </trkpt>
      <trkpt lat="42.50879" lon="-0.16051">
        <ele>1381.9</ele>
        <time>2017-08-13T09:32:54Z</time>
      </trkpt>
      <trkpt lat="42.50882" lon="-0.16046">
        <ele>1380.6</ele>
        <time>2017-08-13T09:32:55Z</time>
      </trkpt>
      <trkpt lat="42.50884" lon="-0.16043">
        <ele>1379.2</ele>
        <time>2017-08-13T09:32:56Z</time>
      </trkpt>
      <trkpt lat="42.50886" lon="-0.16039">
        <ele>1376.8</ele>
        <time>2017-08-13T09:32:57Z</time>
      </trkpt>
      <trkpt lat="42.50888" lon="-0.16036">
        <ele>1375.6</ele>
        <time>2017-08-13T09:32:58Z</time>
      </trkpt>
      <trkpt lat="42.50891" lon="-0.16033">
        <ele>1374.3</ele>
        <time>2017-08-13T09:32:59Z</time>
      </trkpt>
      <trkpt lat="42.50894" lon="-0.1603">
        <ele>1375.1</ele>
        <time>2017-08-13T09:33:00Z</time>
      </trkpt>
      <trkpt lat="42.50897" lon="-0.16026">
        <ele>1374.3</ele>
        <time>2017-08-13T09:33:01Z</time>
      </trkpt>
      <trkpt lat="42.50899" lon="-0.16023">
        <ele>1372.7</ele>
        <time>2017-08-13T09:33:02Z</time>
      </trkpt>
      <trkpt lat="42.50901" lon="-0.1602">
        <ele>1372</ele>
        <time>2017-08-13T09:33:03Z</time>
      </trkpt>
      <trkpt lat="42.50903" lon="-0.16016">
        <ele>1371.8</ele>
        <time>2017-08-13T09:33:04Z</time>
      </trkpt>
      <trkpt lat="42.50904" lon="-0.16012">
        <ele>1371.8</ele>
        <time>2017-08-13T09:33:05Z</time>
      </trkpt>
      <trkpt lat="42.50905" lon="-0.16008">
        <ele>1370.6</ele>
        <time>2017-08-13T09:33:06Z</time>
      </trkpt>
      <trkpt lat="42.50907" lon="-0.16004">
        <ele>1371</ele>
        <time>2017-08-13T09:33:07Z</time>
      </trkpt>
      <trkpt lat="42.50909" lon="-0.15999">
        <ele>1371.8</ele>
        <time>2017-08-13T09:33:09Z</time>
      </trkpt>
      <trkpt lat="42.50911" lon="-0.15996">
        <ele>1371</ele>
        <time>2017-08-13T09:33:10Z</time>
      </trkpt>
      <trkpt lat="42.50913" lon="-0.15993">
        <ele>1371.2</ele>
        <time>2017-08-13T09:33:11Z</time>
      </trkpt>
      <trkpt lat="42.50915" lon="-0.1599">
        <ele>1369.5</ele>
        <time>2017-08-13T09:33:12Z</time>
      </trkpt>
      <trkpt lat="42.50917" lon="-0.15987">
        <ele>1371.2</ele>
        <time>2017-08-13T09:33:13Z</time>
      </trkpt>
      <trkpt lat="42.50919" lon="-0.15984">
        <ele>1370.8</ele>
        <time>2017-08-13T09:33:14Z</time>
      </trkpt>
      <trkpt lat="42.50922" lon="-0.15981">
        <ele>1370.6</ele>
        <time>2017-08-13T09:33:15Z</time>
      </trkpt>
      <trkpt lat="42.50925" lon="-0.15979">
        <ele>1370.6</ele>
        <time>2017-08-13T09:33:17Z</time>
      </trkpt>
      <trkpt lat="42.50927" lon="-0.1598">
        <ele>1372.6</ele>
        <time>2017-08-13T09:33:25Z</time>
      </trkpt>
      <trkpt lat="42.5093" lon="-0.15978">
        <ele>1374.7</ele>
        <time>2017-08-13T09:33:51Z</time>
      </trkpt>
      <trkpt lat="42.50934" lon="-0.15975">
        <ele>1374.9</ele>
        <time>2017-08-13T09:33:53Z</time>
      </trkpt>
      <trkpt lat="42.50937" lon="-0.15971">
        <ele>1375.2</ele>
        <time>2017-08-13T09:33:55Z</time>
      </trkpt>
      <trkpt lat="42.5094" lon="-0.15967">
        <ele>1375.3</ele>
        <time>2017-08-13T09:33:57Z</time>
      </trkpt>
      <trkpt lat="42.50942" lon="-0.15962">
        <ele>1375.1</ele>
        <time>2017-08-13T09:33:59Z</time>
      </trkpt>
      <trkpt lat="42.50944" lon="-0.15956">
        <ele>1371.1</ele>
        <time>2017-08-13T09:34:01Z</time>
      </trkpt>
      <trkpt lat="42.50945" lon="-0.15952">
        <ele>1372.8</ele>
        <time>2017-08-13T09:34:02Z</time>
      </trkpt>
      <trkpt lat="42.50946" lon="-0.15947">
        <ele>1369.7</ele>
        <time>2017-08-13T09:34:04Z</time>
      </trkpt>
      <trkpt lat="42.50946" lon="-0.15942">
        <ele>1368.6</ele>
        <time>2017-08-13T09:34:06Z</time>
      </trkpt>
      <trkpt lat="42.50944" lon="-0.15938">
        <ele>1365.9</ele>
        <time>2017-08-13T09:34:08Z</time>
      </trkpt>
      <trkpt lat="42.50941" lon="-0.15936">
        <ele>1365.9</ele>
        <time>2017-08-13T09:34:12Z</time>
      </trkpt>
      <trkpt lat="42.50939" lon="-0.15933">
        <ele>1363.2</ele>
        <time>2017-08-13T09:34:17Z</time>
      </trkpt>
      <trkpt lat="42.50937" lon="-0.15929">
        <ele>1360.4</ele>
        <time>2017-08-13T09:34:19Z</time>
      </trkpt>
      <trkpt lat="42.50936" lon="-0.15925">
        <ele>1359.8</ele>
        <time>2017-08-13T09:34:20Z</time>
      </trkpt>
      <trkpt lat="42.50935" lon="-0.15921">
        <ele>1359.3</ele>
        <time>2017-08-13T09:34:21Z</time>
      </trkpt>
      <trkpt lat="42.50934" lon="-0.15917">
        <ele>1356.5</ele>
        <time>2017-08-13T09:34:22Z</time>
      </trkpt>
      <trkpt lat="42.50933" lon="-0.15914">
        <ele>1356.5</ele>
        <time>2017-08-13T09:34:23Z</time>
      </trkpt>
      <trkpt lat="42.50931" lon="-0.15908">
        <ele>1353</ele>
        <time>2017-08-13T09:34:25Z</time>
      </trkpt>
      <trkpt lat="42.50928" lon="-0.15902">
        <ele>1352.5</ele>
        <time>2017-08-13T09:34:27Z</time>
      </trkpt>
      <trkpt lat="42.50927" lon="-0.15896">
        <ele>1349.8</ele>
        <time>2017-08-13T09:34:29Z</time>
      </trkpt>
      <trkpt lat="42.50926" lon="-0.15891">
        <ele>1349.8</ele>
        <time>2017-08-13T09:34:31Z</time>
      </trkpt>
      <trkpt lat="42.50925" lon="-0.15886">
        <ele>1350.1</ele>
        <time>2017-08-13T09:34:33Z</time>
      </trkpt>
      <trkpt lat="42.50925" lon="-0.15882">
        <ele>1347.8</ele>
        <time>2017-08-13T09:34:34Z</time>
      </trkpt>
      <trkpt lat="42.50924" lon="-0.15876">
        <ele>1348</ele>
        <time>2017-08-13T09:34:36Z</time>
      </trkpt>
      <trkpt lat="42.50922" lon="-0.15869">
        <ele>1348.6</ele>
        <time>2017-08-13T09:34:38Z</time>
      </trkpt>
      <trkpt lat="42.50921" lon="-0.15863">
        <ele>1346.3</ele>
        <time>2017-08-13T09:34:40Z</time>
      </trkpt>
      <trkpt lat="42.5092" lon="-0.1586">
        <ele>1346.8</ele>
        <time>2017-08-13T09:34:41Z</time>
      </trkpt>
      <trkpt lat="42.50919" lon="-0.15856">
        <ele>1347.4</ele>
        <time>2017-08-13T09:34:42Z</time>
      </trkpt>
      <trkpt lat="42.50918" lon="-0.15852">
        <ele>1345.6</ele>
        <time>2017-08-13T09:34:43Z</time>
      </trkpt>
      <trkpt lat="42.50917" lon="-0.15849">
        <ele>1346</ele>
        <time>2017-08-13T09:34:44Z</time>
      </trkpt>
      <trkpt lat="42.50916" lon="-0.15845">
        <ele>1346</ele>
        <time>2017-08-13T09:34:45Z</time>
      </trkpt>
      <trkpt lat="42.50915" lon="-0.15842">
        <ele>1344.4</ele>
        <time>2017-08-13T09:34:46Z</time>
      </trkpt>
      <trkpt lat="42.50914" lon="-0.15836">
        <ele>1344.6</ele>
        <time>2017-08-13T09:34:48Z</time>
      </trkpt>
      <trkpt lat="42.50915" lon="-0.15829">
        <ele>1344.1</ele>
        <time>2017-08-13T09:34:50Z</time>
      </trkpt>
      <trkpt lat="42.50916" lon="-0.15825">
        <ele>1344.8</ele>
        <time>2017-08-13T09:34:51Z</time>
      </trkpt>
      <trkpt lat="42.50918" lon="-0.15822">
        <ele>1343.6</ele>
        <time>2017-08-13T09:34:52Z</time>
      </trkpt>
      <trkpt lat="42.5092" lon="-0.15818">
        <ele>1343.5</ele>
        <time>2017-08-13T09:34:53Z</time>
      </trkpt>
      <trkpt lat="42.50923" lon="-0.15814">
        <ele>1343.5</ele>
        <time>2017-08-13T09:34:54Z</time>
      </trkpt>
      <trkpt lat="42.50926" lon="-0.1581">
        <ele>1343.8</ele>
        <time>2017-08-13T09:34:55Z</time>
      </trkpt>
      <trkpt lat="42.50929" lon="-0.15806">
        <ele>1345.5</ele>
        <time>2017-08-13T09:34:56Z</time>
      </trkpt>
      <trkpt lat="42.50932" lon="-0.15802">
        <ele>1345.8</ele>
        <time>2017-08-13T09:34:57Z</time>
      </trkpt>
      <trkpt lat="42.50935" lon="-0.15798">
        <ele>1345.7</ele>
        <time>2017-08-13T09:34:58Z</time>
      </trkpt>
      <trkpt lat="42.50938" lon="-0.15794">
        <ele>1345</ele>
        <time>2017-08-13T09:34:59Z</time>
      </trkpt>
      <trkpt lat="42.5094" lon="-0.1579">
        <ele>1342.9</ele>
        <time>2017-08-13T09:35:00Z</time>
      </trkpt>
      <trkpt lat="42.50942" lon="-0.15787">
        <ele>1341.5</ele>
        <time>2017-08-13T09:35:01Z</time>
      </trkpt>
      <trkpt lat="42.50944" lon="-0.15783">
        <ele>1340.1</ele>
        <time>2017-08-13T09:35:02Z</time>
      </trkpt>
      <trkpt lat="42.50947" lon="-0.15781">
        <ele>1340.1</ele>
        <time>2017-08-13T09:35:03Z</time>
      </trkpt>
      <trkpt lat="42.5095" lon="-0.15777">
        <ele>1339.2</ele>
        <time>2017-08-13T09:35:05Z</time>
      </trkpt>
      <trkpt lat="42.50953" lon="-0.15772">
        <ele>1338.9</ele>
        <time>2017-08-13T09:35:07Z</time>
      </trkpt>
      <trkpt lat="42.50956" lon="-0.15766">
        <ele>1338.2</ele>
        <time>2017-08-13T09:35:09Z</time>
      </trkpt>
      <trkpt lat="42.50958" lon="-0.15764">
        <ele>1340.1</ele>
        <time>2017-08-13T09:35:10Z</time>
      </trkpt>
      <trkpt lat="42.5096" lon="-0.1576">
        <ele>1339.2</ele>
        <time>2017-08-13T09:35:11Z</time>
      </trkpt>
      <trkpt lat="42.50961" lon="-0.15757">
        <ele>1340.4</ele>
        <time>2017-08-13T09:35:12Z</time>
      </trkpt>
      <trkpt lat="42.50964" lon="-0.15751">
        <ele>1341.6</ele>
        <time>2017-08-13T09:35:14Z</time>
      </trkpt>
      <trkpt lat="42.50965" lon="-0.15745">
        <ele>1339.8</ele>
        <time>2017-08-13T09:35:16Z</time>
      </trkpt>
      <trkpt lat="42.50966" lon="-0.15741">
        <ele>1340.4</ele>
        <time>2017-08-13T09:35:17Z</time>
      </trkpt>
      <trkpt lat="42.50967" lon="-0.15737">
        <ele>1340.4</ele>
        <time>2017-08-13T09:35:18Z</time>
      </trkpt>
      <trkpt lat="42.50968" lon="-0.15733">
        <ele>1339.3</ele>
        <time>2017-08-13T09:35:19Z</time>
      </trkpt>
      <trkpt lat="42.50968" lon="-0.15729">
        <ele>1338.3</ele>
        <time>2017-08-13T09:35:20Z</time>
      </trkpt>
      <trkpt lat="42.5097" lon="-0.15725">
        <ele>1338.9</ele>
        <time>2017-08-13T09:35:21Z</time>
      </trkpt>
      <trkpt lat="42.50971" lon="-0.15721">
        <ele>1338.4</ele>
        <time>2017-08-13T09:35:22Z</time>
      </trkpt>
      <trkpt lat="42.50974" lon="-0.15718">
        <ele>1339.4</ele>
        <time>2017-08-13T09:35:23Z</time>
      </trkpt>
      <trkpt lat="42.50976" lon="-0.15715">
        <ele>1340.9</ele>
        <time>2017-08-13T09:35:24Z</time>
      </trkpt>
      <trkpt lat="42.50979" lon="-0.1571">
        <ele>1343</ele>
        <time>2017-08-13T09:35:26Z</time>
      </trkpt>
      <trkpt lat="42.50979" lon="-0.15705">
        <ele>1343.7</ele>
        <time>2017-08-13T09:35:28Z</time>
      </trkpt>
      <trkpt lat="42.50976" lon="-0.15701">
        <ele>1342.6</ele>
        <time>2017-08-13T09:35:30Z</time>
      </trkpt>
      <trkpt lat="42.50973" lon="-0.15698">
        <ele>1341.6</ele>
        <time>2017-08-13T09:35:32Z</time>
      </trkpt>
      <trkpt lat="42.50971" lon="-0.15695">
        <ele>1339.9</ele>
        <time>2017-08-13T09:35:35Z</time>
      </trkpt>
      <trkpt lat="42.50966" lon="-0.15693">
        <ele>1338.7</ele>
        <time>2017-08-13T09:35:49Z</time>
      </trkpt>
      <trkpt lat="42.50964" lon="-0.15691">
        <ele>1336.7</ele>
        <time>2017-08-13T09:35:50Z</time>
      </trkpt>
      <trkpt lat="42.50961" lon="-0.15689">
        <ele>1335.3</ele>
        <time>2017-08-13T09:35:51Z</time>
      </trkpt>
      <trkpt lat="42.50958" lon="-0.15686">
        <ele>1333.1</ele>
        <time>2017-08-13T09:35:52Z</time>
      </trkpt>
      <trkpt lat="42.50954" lon="-0.15683">
        <ele>1331.7</ele>
        <time>2017-08-13T09:35:53Z</time>
      </trkpt>
      <trkpt lat="42.50952" lon="-0.15679">
        <ele>1330.5</ele>
        <time>2017-08-13T09:35:54Z</time>
      </trkpt>
      <trkpt lat="42.50949" lon="-0.15676">
        <ele>1329.5</ele>
        <time>2017-08-13T09:35:55Z</time>
      </trkpt>
      <trkpt lat="42.50947" lon="-0.15672">
        <ele>1328.6</ele>
        <time>2017-08-13T09:35:56Z</time>
      </trkpt>
      <trkpt lat="42.50944" lon="-0.15667">
        <ele>1329.7</ele>
        <time>2017-08-13T09:35:57Z</time>
      </trkpt>
      <trkpt lat="42.50942" lon="-0.15663">
        <ele>1328.8</ele>
        <time>2017-08-13T09:35:58Z</time>
      </trkpt>
      <trkpt lat="42.5094" lon="-0.1566">
        <ele>1327.9</ele>
        <time>2017-08-13T09:35:59Z</time>
      </trkpt>
      <trkpt lat="42.50939" lon="-0.15656">
        <ele>1327.9</ele>
        <time>2017-08-13T09:36:00Z</time>
      </trkpt>
      <trkpt lat="42.50938" lon="-0.15653">
        <ele>1329.3</ele>
        <time>2017-08-13T09:36:01Z</time>
      </trkpt>
      <trkpt lat="42.50936" lon="-0.15649">
        <ele>1328.4</ele>
        <time>2017-08-13T09:36:02Z</time>
      </trkpt>
      <trkpt lat="42.50934" lon="-0.15645">
        <ele>1327.4</ele>
        <time>2017-08-13T09:36:03Z</time>
      </trkpt>
      <trkpt lat="42.50931" lon="-0.15641">
        <ele>1326.4</ele>
        <time>2017-08-13T09:36:04Z</time>
      </trkpt>
      <trkpt lat="42.50927" lon="-0.15638">
        <ele>1325.5</ele>
        <time>2017-08-13T09:36:05Z</time>
      </trkpt>
      <trkpt lat="42.50923" lon="-0.15635">
        <ele>1323</ele>
        <time>2017-08-13T09:36:06Z</time>
      </trkpt>
      <trkpt lat="42.5092" lon="-0.15633">
        <ele>1322.8</ele>
        <time>2017-08-13T09:36:07Z</time>
      </trkpt>
      <trkpt lat="42.50917" lon="-0.15631">
        <ele>1320.9</ele>
        <time>2017-08-13T09:36:08Z</time>
      </trkpt>
      <trkpt lat="42.50915" lon="-0.15629">
        <ele>1321.4</ele>
        <time>2017-08-13T09:36:09Z</time>
      </trkpt>
      <trkpt lat="42.50912" lon="-0.15627">
        <ele>1319.5</ele>
        <time>2017-08-13T09:36:10Z</time>
      </trkpt>
      <trkpt lat="42.50909" lon="-0.15625">
        <ele>1320.2</ele>
        <time>2017-08-13T09:36:11Z</time>
      </trkpt>
      <trkpt lat="42.50906" lon="-0.15623">
        <ele>1318.4</ele>
        <time>2017-08-13T09:36:12Z</time>
      </trkpt>
      <trkpt lat="42.50903" lon="-0.15622">
        <ele>1318.4</ele>
        <time>2017-08-13T09:36:13Z</time>
      </trkpt>
      <trkpt lat="42.509" lon="-0.15621">
        <ele>1319.2</ele>
        <time>2017-08-13T09:36:14Z</time>
      </trkpt>
      <trkpt lat="42.50895" lon="-0.15619">
        <ele>1316.5</ele>
        <time>2017-08-13T09:36:16Z</time>
      </trkpt>
      <trkpt lat="42.50892" lon="-0.15617">
        <ele>1315.7</ele>
        <time>2017-08-13T09:36:17Z</time>
      </trkpt>
      <trkpt lat="42.50889" lon="-0.15616">
        <ele>1317.1</ele>
        <time>2017-08-13T09:36:18Z</time>
      </trkpt>
      <trkpt lat="42.50886" lon="-0.15613">
        <ele>1316.6</ele>
        <time>2017-08-13T09:36:19Z</time>
      </trkpt>
      <trkpt lat="42.50883" lon="-0.1561">
        <ele>1318.1</ele>
        <time>2017-08-13T09:36:20Z</time>
      </trkpt>
      <trkpt lat="42.50881" lon="-0.15607">
        <ele>1320.4</ele>
        <time>2017-08-13T09:36:21Z</time>
      </trkpt>
      <trkpt lat="42.50879" lon="-0.15605">
        <ele>1319.8</ele>
        <time>2017-08-13T09:36:22Z</time>
      </trkpt>
      <trkpt lat="42.50875" lon="-0.156">
        <ele>1321.8</ele>
        <time>2017-08-13T09:36:24Z</time>
      </trkpt>
      <trkpt lat="42.50872" lon="-0.15597">
        <ele>1323.9</ele>
        <time>2017-08-13T09:36:25Z</time>
      </trkpt>
      <trkpt lat="42.50869" lon="-0.15595">
        <ele>1325.9</ele>
        <time>2017-08-13T09:36:26Z</time>
      </trkpt>
      <trkpt lat="42.50866" lon="-0.15593">
        <ele>1325.3</ele>
        <time>2017-08-13T09:36:27Z</time>
      </trkpt>
      <trkpt lat="42.50862" lon="-0.1559">
        <ele>1326.9</ele>
        <time>2017-08-13T09:36:28Z</time>
      </trkpt>
      <trkpt lat="42.50859" lon="-0.15588">
        <ele>1326.3</ele>
        <time>2017-08-13T09:36:29Z</time>
      </trkpt>
      <trkpt lat="42.50856" lon="-0.15586">
        <ele>1327.3</ele>
        <time>2017-08-13T09:36:30Z</time>
      </trkpt>
      <trkpt lat="42.50853" lon="-0.15584">
        <ele>1326.2</ele>
        <time>2017-08-13T09:36:31Z</time>
      </trkpt>
      <trkpt lat="42.50851" lon="-0.15582">
        <ele>1326.5</ele>
        <time>2017-08-13T09:36:32Z</time>
      </trkpt>
      <trkpt lat="42.50848" lon="-0.1558">
        <ele>1325</ele>
        <time>2017-08-13T09:36:33Z</time>
      </trkpt>
      <trkpt lat="42.50846" lon="-0.15577">
        <ele>1325.1</ele>
        <time>2017-08-13T09:36:34Z</time>
      </trkpt>
      <trkpt lat="42.50844" lon="-0.15574">
        <ele>1326.8</ele>
        <time>2017-08-13T09:36:35Z</time>
      </trkpt>
      <trkpt lat="42.5084" lon="-0.15569">
        <ele>1326.9</ele>
        <time>2017-08-13T09:36:37Z</time>
      </trkpt>
      <trkpt lat="42.50835" lon="-0.15566">
        <ele>1324</ele>
        <time>2017-08-13T09:36:39Z</time>
      </trkpt>
      <trkpt lat="42.50832" lon="-0.15565">
        <ele>1324.2</ele>
        <time>2017-08-13T09:36:40Z</time>
      </trkpt>
      <trkpt lat="42.50829" lon="-0.15564">
        <ele>1322.9</ele>
        <time>2017-08-13T09:36:41Z</time>
      </trkpt>
      <trkpt lat="42.50826" lon="-0.15563">
        <ele>1321.6</ele>
        <time>2017-08-13T09:36:42Z</time>
      </trkpt>
      <trkpt lat="42.50822" lon="-0.15561">
        <ele>1321.5</ele>
        <time>2017-08-13T09:36:43Z</time>
      </trkpt>
      <trkpt lat="42.50818" lon="-0.15559">
        <ele>1320.1</ele>
        <time>2017-08-13T09:36:44Z</time>
      </trkpt>
      <trkpt lat="42.50815" lon="-0.15557">
        <ele>1320</ele>
        <time>2017-08-13T09:36:45Z</time>
      </trkpt>
      <trkpt lat="42.50812" lon="-0.15555">
        <ele>1318.8</ele>
        <time>2017-08-13T09:36:46Z</time>
      </trkpt>
      <trkpt lat="42.50808" lon="-0.15553">
        <ele>1317.6</ele>
        <time>2017-08-13T09:36:47Z</time>
      </trkpt>
      <trkpt lat="42.50805" lon="-0.15551">
        <ele>1317.8</ele>
        <time>2017-08-13T09:36:48Z</time>
      </trkpt>
      <trkpt lat="42.50802" lon="-0.15549">
        <ele>1316.8</ele>
        <time>2017-08-13T09:36:49Z</time>
      </trkpt>
      <trkpt lat="42.508" lon="-0.15547">
        <ele>1317.1</ele>
        <time>2017-08-13T09:36:50Z</time>
      </trkpt>
      <trkpt lat="42.50797" lon="-0.15545">
        <ele>1315.8</ele>
        <time>2017-08-13T09:36:51Z</time>
      </trkpt>
      <trkpt lat="42.50795" lon="-0.15543">
        <ele>1316</ele>
        <time>2017-08-13T09:36:52Z</time>
      </trkpt>
      <trkpt lat="42.50792" lon="-0.1554">
        <ele>1316</ele>
        <time>2017-08-13T09:36:53Z</time>
      </trkpt>
      <trkpt lat="42.50789" lon="-0.15537">
        <ele>1316.1</ele>
        <time>2017-08-13T09:36:54Z</time>
      </trkpt>
      <trkpt lat="42.50787" lon="-0.15534">
        <ele>1316.2</ele>
        <time>2017-08-13T09:36:55Z</time>
      </trkpt>
      <trkpt lat="42.50783" lon="-0.15531">
        <ele>1314.8</ele>
        <time>2017-08-13T09:36:56Z</time>
      </trkpt>
      <trkpt lat="42.5078" lon="-0.15529">
        <ele>1314.8</ele>
        <time>2017-08-13T09:36:57Z</time>
      </trkpt>
      <trkpt lat="42.50776" lon="-0.15525">
        <ele>1313.6</ele>
        <time>2017-08-13T09:36:58Z</time>
      </trkpt>
      <trkpt lat="42.50773" lon="-0.15522">
        <ele>1313.5</ele>
        <time>2017-08-13T09:36:59Z</time>
      </trkpt>
      <trkpt lat="42.5077" lon="-0.15519">
        <ele>1312.2</ele>
        <time>2017-08-13T09:37:00Z</time>
      </trkpt>
      <trkpt lat="42.50767" lon="-0.15516">
        <ele>1311.9</ele>
        <time>2017-08-13T09:37:01Z</time>
      </trkpt>
      <trkpt lat="42.50764" lon="-0.15512">
        <ele>1312.7</ele>
        <time>2017-08-13T09:37:02Z</time>
      </trkpt>
      <trkpt lat="42.50761" lon="-0.15508">
        <ele>1312.2</ele>
        <time>2017-08-13T09:37:03Z</time>
      </trkpt>
      <trkpt lat="42.50759" lon="-0.15504">
        <ele>1311.5</ele>
        <time>2017-08-13T09:37:04Z</time>
      </trkpt>
      <trkpt lat="42.50757" lon="-0.155">
        <ele>1312</ele>
        <time>2017-08-13T09:37:05Z</time>
      </trkpt>
      <trkpt lat="42.50756" lon="-0.15495">
        <ele>1311.1</ele>
        <time>2017-08-13T09:37:06Z</time>
      </trkpt>
      <trkpt lat="42.50756" lon="-0.15491">
        <ele>1311.4</ele>
        <time>2017-08-13T09:37:07Z</time>
      </trkpt>
      <trkpt lat="42.50756" lon="-0.15487">
        <ele>1311.7</ele>
        <time>2017-08-13T09:37:08Z</time>
      </trkpt>
      <trkpt lat="42.50757" lon="-0.15482">
        <ele>1311.7</ele>
        <time>2017-08-13T09:37:09Z</time>
      </trkpt>
      <trkpt lat="42.50758" lon="-0.15478">
        <ele>1313.4</ele>
        <time>2017-08-13T09:37:10Z</time>
      </trkpt>
      <trkpt lat="42.50759" lon="-0.15474">
        <ele>1313.1</ele>
        <time>2017-08-13T09:37:11Z</time>
      </trkpt>
      <trkpt lat="42.5076" lon="-0.1547">
        <ele>1312.7</ele>
        <time>2017-08-13T09:37:12Z</time>
      </trkpt>
      <trkpt lat="42.50761" lon="-0.15467">
        <ele>1314.7</ele>
        <time>2017-08-13T09:37:14Z</time>
      </trkpt>
      <trkpt lat="42.50763" lon="-0.15464">
        <ele>1314.1</ele>
        <time>2017-08-13T09:37:17Z</time>
      </trkpt>
      <trkpt lat="42.50765" lon="-0.1546">
        <ele>1315.2</ele>
        <time>2017-08-13T09:37:19Z</time>
      </trkpt>
      <trkpt lat="42.50767" lon="-0.15454">
        <ele>1315.7</ele>
        <time>2017-08-13T09:37:21Z</time>
      </trkpt>
      <trkpt lat="42.50768" lon="-0.15448">
        <ele>1312.5</ele>
        <time>2017-08-13T09:37:23Z</time>
      </trkpt>
      <trkpt lat="42.5077" lon="-0.15442">
        <ele>1312.2</ele>
        <time>2017-08-13T09:37:25Z</time>
      </trkpt>
      <trkpt lat="42.50772" lon="-0.15435">
        <ele>1308.2</ele>
        <time>2017-08-13T09:37:27Z</time>
      </trkpt>
      <trkpt lat="42.50774" lon="-0.15431">
        <ele>1307.6</ele>
        <time>2017-08-13T09:37:28Z</time>
      </trkpt>
      <trkpt lat="42.50776" lon="-0.15428">
        <ele>1305.8</ele>
        <time>2017-08-13T09:37:29Z</time>
      </trkpt>
      <trkpt lat="42.50778" lon="-0.15423">
        <ele>1305.4</ele>
        <time>2017-08-13T09:37:31Z</time>
      </trkpt>
      <trkpt lat="42.5078" lon="-0.15418">
        <ele>1305.3</ele>
        <time>2017-08-13T09:37:34Z</time>
      </trkpt>
      <trkpt lat="42.50781" lon="-0.15412">
        <ele>1304.3</ele>
        <time>2017-08-13T09:37:36Z</time>
      </trkpt>
      <trkpt lat="42.50782" lon="-0.15407">
        <ele>1303.6</ele>
        <time>2017-08-13T09:37:37Z</time>
      </trkpt>
      <trkpt lat="42.50783" lon="-0.15403">
        <ele>1304.6</ele>
        <time>2017-08-13T09:37:38Z</time>
      </trkpt>
      <trkpt lat="42.50784" lon="-0.154">
        <ele>1304.4</ele>
        <time>2017-08-13T09:37:39Z</time>
      </trkpt>
      <trkpt lat="42.50787" lon="-0.15394">
        <ele>1306.2</ele>
        <time>2017-08-13T09:37:41Z</time>
      </trkpt>
      <trkpt lat="42.50789" lon="-0.15391">
        <ele>1306.5</ele>
        <time>2017-08-13T09:37:42Z</time>
      </trkpt>
      <trkpt lat="42.5079" lon="-0.15385">
        <ele>1309</ele>
        <time>2017-08-13T09:37:44Z</time>
      </trkpt>
      <trkpt lat="42.5079" lon="-0.15378">
        <ele>1309.2</ele>
        <time>2017-08-13T09:37:46Z</time>
      </trkpt>
      <trkpt lat="42.5079" lon="-0.15371">
        <ele>1309.4</ele>
        <time>2017-08-13T09:37:48Z</time>
      </trkpt>
      <trkpt lat="42.5079" lon="-0.15367">
        <ele>1309.3</ele>
        <time>2017-08-13T09:37:49Z</time>
      </trkpt>
      <trkpt lat="42.5079" lon="-0.15363">
        <ele>1309.1</ele>
        <time>2017-08-13T09:37:50Z</time>
      </trkpt>
      <trkpt lat="42.5079" lon="-0.15359">
        <ele>1308.8</ele>
        <time>2017-08-13T09:37:51Z</time>
      </trkpt>
      <trkpt lat="42.50789" lon="-0.15353">
        <ele>1308.4</ele>
        <time>2017-08-13T09:37:53Z</time>
      </trkpt>
      <trkpt lat="42.50786" lon="-0.15351">
        <ele>1307</ele>
        <time>2017-08-13T09:38:00Z</time>
      </trkpt>
      <trkpt lat="42.50785" lon="-0.15347">
        <ele>1305.3</ele>
        <time>2017-08-13T09:38:03Z</time>
      </trkpt>
      <trkpt lat="42.50782" lon="-0.15344">
        <ele>1303.7</ele>
        <time>2017-08-13T09:38:07Z</time>
      </trkpt>
      <trkpt lat="42.50779" lon="-0.15343">
        <ele>1302.7</ele>
        <time>2017-08-13T09:38:10Z</time>
      </trkpt>
      <trkpt lat="42.50776" lon="-0.15341">
        <ele>1302.4</ele>
        <time>2017-08-13T09:38:12Z</time>
      </trkpt>
      <trkpt lat="42.50775" lon="-0.15337">
        <ele>1301.1</ele>
        <time>2017-08-13T09:38:13Z</time>
      </trkpt>
      <trkpt lat="42.50773" lon="-0.15334">
        <ele>1301.1</ele>
        <time>2017-08-13T09:38:14Z</time>
      </trkpt>
      <trkpt lat="42.50772" lon="-0.1533">
        <ele>1299.9</ele>
        <time>2017-08-13T09:38:15Z</time>
      </trkpt>
      <trkpt lat="42.5077" lon="-0.15325">
        <ele>1299.4</ele>
        <time>2017-08-13T09:38:17Z</time>
      </trkpt>
      <trkpt lat="42.50768" lon="-0.15322">
        <ele>1299.4</ele>
        <time>2017-08-13T09:38:19Z</time>
      </trkpt>
      <trkpt lat="42.50765" lon="-0.1532">
        <ele>1299.1</ele>
        <time>2017-08-13T09:38:21Z</time>
      </trkpt>
      <trkpt lat="42.50762" lon="-0.15317">
        <ele>1298.1</ele>
        <time>2017-08-13T09:38:23Z</time>
      </trkpt>
      <trkpt lat="42.50758" lon="-0.15315">
        <ele>1298.1</ele>
        <time>2017-08-13T09:38:25Z</time>
      </trkpt>
      <trkpt lat="42.50754" lon="-0.15312">
        <ele>1297.2</ele>
        <time>2017-08-13T09:38:27Z</time>
      </trkpt>
      <trkpt lat="42.5075" lon="-0.15309">
        <ele>1296.7</ele>
        <time>2017-08-13T09:38:29Z</time>
      </trkpt>
      <trkpt lat="42.50746" lon="-0.15306">
        <ele>1296.8</ele>
        <time>2017-08-13T09:38:31Z</time>
      </trkpt>
      <trkpt lat="42.50742" lon="-0.15303">
        <ele>1296.9</ele>
        <time>2017-08-13T09:38:33Z</time>
      </trkpt>
      <trkpt lat="42.50739" lon="-0.153">
        <ele>1295.5</ele>
        <time>2017-08-13T09:38:35Z</time>
      </trkpt>
      <trkpt lat="42.50735" lon="-0.15296">
        <ele>1294.1</ele>
        <time>2017-08-13T09:38:37Z</time>
      </trkpt>
      <trkpt lat="42.50732" lon="-0.15294">
        <ele>1296</ele>
        <time>2017-08-13T09:38:38Z</time>
      </trkpt>
      <trkpt lat="42.50728" lon="-0.15292">
        <ele>1292.9</ele>
        <time>2017-08-13T09:38:40Z</time>
      </trkpt>
      <trkpt lat="42.50724" lon="-0.1529">
        <ele>1293.5</ele>
        <time>2017-08-13T09:38:42Z</time>
      </trkpt>
      <trkpt lat="42.50721" lon="-0.15288">
        <ele>1292</ele>
        <time>2017-08-13T09:38:44Z</time>
      </trkpt>
      <trkpt lat="42.50718" lon="-0.15282">
        <ele>1294.3</ele>
        <time>2017-08-13T09:39:47Z</time>
      </trkpt>
      <trkpt lat="42.50715" lon="-0.1528">
        <ele>1292.2</ele>
        <time>2017-08-13T09:39:49Z</time>
      </trkpt>
      <trkpt lat="42.50711" lon="-0.15276">
        <ele>1291.8</ele>
        <time>2017-08-13T09:39:51Z</time>
      </trkpt>
      <trkpt lat="42.50707" lon="-0.15272">
        <ele>1291.7</ele>
        <time>2017-08-13T09:39:53Z</time>
      </trkpt>
      <trkpt lat="42.50703" lon="-0.15268">
        <ele>1289.8</ele>
        <time>2017-08-13T09:39:55Z</time>
      </trkpt>
      <trkpt lat="42.507" lon="-0.15264">
        <ele>1290.6</ele>
        <time>2017-08-13T09:39:57Z</time>
      </trkpt>
      <trkpt lat="42.50697" lon="-0.15258">
        <ele>1291.6</ele>
        <time>2017-08-13T09:39:59Z</time>
      </trkpt>
      <trkpt lat="42.50692" lon="-0.15254">
        <ele>1292.5</ele>
        <time>2017-08-13T09:40:01Z</time>
      </trkpt>
      <trkpt lat="42.5069" lon="-0.15253">
        <ele>1290.7</ele>
        <time>2017-08-13T09:40:02Z</time>
      </trkpt>
      <trkpt lat="42.50686" lon="-0.15249">
        <ele>1291.1</ele>
        <time>2017-08-13T09:40:04Z</time>
      </trkpt>
      <trkpt lat="42.50683" lon="-0.15245">
        <ele>1291.3</ele>
        <time>2017-08-13T09:40:06Z</time>
      </trkpt>
      <trkpt lat="42.50679" lon="-0.15241">
        <ele>1291.8</ele>
        <time>2017-08-13T09:40:08Z</time>
      </trkpt>
      <trkpt lat="42.50677" lon="-0.15239">
        <ele>1292.7</ele>
        <time>2017-08-13T09:40:09Z</time>
      </trkpt>
      <trkpt lat="42.50674" lon="-0.15236">
        <ele>1290.9</ele>
        <time>2017-08-13T09:40:10Z</time>
      </trkpt>
      <trkpt lat="42.50671" lon="-0.15234">
        <ele>1292.4</ele>
        <time>2017-08-13T09:40:11Z</time>
      </trkpt>
      <trkpt lat="42.50668" lon="-0.15231">
        <ele>1291</ele>
        <time>2017-08-13T09:40:12Z</time>
      </trkpt>
      <trkpt lat="42.50666" lon="-0.15229">
        <ele>1294</ele>
        <time>2017-08-13T09:40:13Z</time>
      </trkpt>
      <trkpt lat="42.50663" lon="-0.15226">
        <ele>1295.5</ele>
        <time>2017-08-13T09:40:14Z</time>
      </trkpt>
      <trkpt lat="42.50661" lon="-0.15224">
        <ele>1294</ele>
        <time>2017-08-13T09:40:15Z</time>
      </trkpt>
      <trkpt lat="42.50658" lon="-0.15222">
        <ele>1292.6</ele>
        <time>2017-08-13T09:40:16Z</time>
      </trkpt>
      <trkpt lat="42.50656" lon="-0.15221">
        <ele>1293.6</ele>
        <time>2017-08-13T09:40:17Z</time>
      </trkpt>
      <trkpt lat="42.50653" lon="-0.15218">
        <ele>1293.6</ele>
        <time>2017-08-13T09:40:18Z</time>
      </trkpt>
      <trkpt lat="42.50651" lon="-0.15216">
        <ele>1294.8</ele>
        <time>2017-08-13T09:40:19Z</time>
      </trkpt>
      <trkpt lat="42.50648" lon="-0.15214">
        <ele>1293.3</ele>
        <time>2017-08-13T09:40:20Z</time>
      </trkpt>
      <trkpt lat="42.50645" lon="-0.15212">
        <ele>1294.8</ele>
        <time>2017-08-13T09:40:21Z</time>
      </trkpt>
      <trkpt lat="42.50642" lon="-0.1521">
        <ele>1293.7</ele>
        <time>2017-08-13T09:40:22Z</time>
      </trkpt>
      <trkpt lat="42.5064" lon="-0.15208">
        <ele>1295.5</ele>
        <time>2017-08-13T09:40:23Z</time>
      </trkpt>
      <trkpt lat="42.50637" lon="-0.15206">
        <ele>1295.5</ele>
        <time>2017-08-13T09:40:24Z</time>
      </trkpt>
      <trkpt lat="42.50635" lon="-0.15204">
        <ele>1297.3</ele>
        <time>2017-08-13T09:40:25Z</time>
      </trkpt>
      <trkpt lat="42.50633" lon="-0.15202">
        <ele>1296.3</ele>
        <time>2017-08-13T09:40:26Z</time>
      </trkpt>
      <trkpt lat="42.5063" lon="-0.152">
        <ele>1297.5</ele>
        <time>2017-08-13T09:40:27Z</time>
      </trkpt>
      <trkpt lat="42.50628" lon="-0.15198">
        <ele>1297.5</ele>
        <time>2017-08-13T09:40:28Z</time>
      </trkpt>
      <trkpt lat="42.50625" lon="-0.15196">
        <ele>1298.3</ele>
        <time>2017-08-13T09:40:29Z</time>
      </trkpt>
      <trkpt lat="42.50621" lon="-0.15193">
        <ele>1295.9</ele>
        <time>2017-08-13T09:40:31Z</time>
      </trkpt>
      <trkpt lat="42.50617" lon="-0.15189">
        <ele>1296.6</ele>
        <time>2017-08-13T09:40:33Z</time>
      </trkpt>
      <trkpt lat="42.50614" lon="-0.15187">
        <ele>1297.6</ele>
        <time>2017-08-13T09:40:35Z</time>
      </trkpt>
      <trkpt lat="42.50612" lon="-0.15185">
        <ele>1297.6</ele>
        <time>2017-08-13T09:40:37Z</time>
      </trkpt>
      <trkpt lat="42.5061" lon="-0.15182">
        <ele>1298.7</ele>
        <time>2017-08-13T09:40:40Z</time>
      </trkpt>
      <trkpt lat="42.50608" lon="-0.15179">
        <ele>1299.7</ele>
        <time>2017-08-13T09:40:43Z</time>
      </trkpt>
      <trkpt lat="42.50604" lon="-0.15176">
        <ele>1298.3</ele>
        <time>2017-08-13T09:40:45Z</time>
      </trkpt>
      <trkpt lat="42.50601" lon="-0.15172">
        <ele>1298.8</ele>
        <time>2017-08-13T09:40:47Z</time>
      </trkpt>
      <trkpt lat="42.50598" lon="-0.15169">
        <ele>1299</ele>
        <time>2017-08-13T09:40:49Z</time>
      </trkpt>
      <trkpt lat="42.50595" lon="-0.15167">
        <ele>1297.2</ele>
        <time>2017-08-13T09:40:51Z</time>
      </trkpt>
      <trkpt lat="42.50593" lon="-0.15164">
        <ele>1297.2</ele>
        <time>2017-08-13T09:40:53Z</time>
      </trkpt>
      <trkpt lat="42.5059" lon="-0.1516">
        <ele>1299.2</ele>
        <time>2017-08-13T09:40:55Z</time>
      </trkpt>
      <trkpt lat="42.50586" lon="-0.15156">
        <ele>1299.7</ele>
        <time>2017-08-13T09:40:57Z</time>
      </trkpt>
      <trkpt lat="42.50583" lon="-0.15151">
        <ele>1300.3</ele>
        <time>2017-08-13T09:40:59Z</time>
      </trkpt>
      <trkpt lat="42.50581" lon="-0.15146">
        <ele>1300.8</ele>
        <time>2017-08-13T09:41:01Z</time>
      </trkpt>
      <trkpt lat="42.50578" lon="-0.15141">
        <ele>1300.9</ele>
        <time>2017-08-13T09:41:03Z</time>
      </trkpt>
      <trkpt lat="42.50577" lon="-0.15136">
        <ele>1301.9</ele>
        <time>2017-08-13T09:41:05Z</time>
      </trkpt>
      <trkpt lat="42.50575" lon="-0.15129">
        <ele>1303.3</ele>
        <time>2017-08-13T09:41:07Z</time>
      </trkpt>
      <trkpt lat="42.50574" lon="-0.15125">
        <ele>1304.5</ele>
        <time>2017-08-13T09:41:08Z</time>
      </trkpt>
      <trkpt lat="42.50572" lon="-0.15119">
        <ele>1304.3</ele>
        <time>2017-08-13T09:41:10Z</time>
      </trkpt>
      <trkpt lat="42.50571" lon="-0.15115">
        <ele>1305.1</ele>
        <time>2017-08-13T09:41:11Z</time>
      </trkpt>
      <trkpt lat="42.5057" lon="-0.15111">
        <ele>1302.7</ele>
        <time>2017-08-13T09:41:12Z</time>
      </trkpt>
      <trkpt lat="42.5057" lon="-0.15106">
        <ele>1303.3</ele>
        <time>2017-08-13T09:41:13Z</time>
      </trkpt>
      <trkpt lat="42.5057" lon="-0.15102">
        <ele>1303.9</ele>
        <time>2017-08-13T09:41:14Z</time>
      </trkpt>
      <trkpt lat="42.5057" lon="-0.15098">
        <ele>1304.3</ele>
        <time>2017-08-13T09:41:15Z</time>
      </trkpt>
      <trkpt lat="42.5057" lon="-0.15094">
        <ele>1304.5</ele>
        <time>2017-08-13T09:41:16Z</time>
      </trkpt>
      <trkpt lat="42.50571" lon="-0.15088">
        <ele>1306.9</ele>
        <time>2017-08-13T09:41:18Z</time>
      </trkpt>
      <trkpt lat="42.50572" lon="-0.15083">
        <ele>1307</ele>
        <time>2017-08-13T09:41:20Z</time>
      </trkpt>
      <trkpt lat="42.50572" lon="-0.15079">
        <ele>1307</ele>
        <time>2017-08-13T09:41:22Z</time>
      </trkpt>
      <trkpt lat="42.50572" lon="-0.15075">
        <ele>1306.9</ele>
        <time>2017-08-13T09:41:24Z</time>
      </trkpt>
      <trkpt lat="42.50572" lon="-0.15069">
        <ele>1306.4</ele>
        <time>2017-08-13T09:41:26Z</time>
      </trkpt>
      <trkpt lat="42.50574" lon="-0.15064">
        <ele>1308</ele>
        <time>2017-08-13T09:41:28Z</time>
      </trkpt>
      <trkpt lat="42.50576" lon="-0.15059">
        <ele>1306.7</ele>
        <time>2017-08-13T09:41:30Z</time>
      </trkpt>
      <trkpt lat="42.50578" lon="-0.15056">
        <ele>1307.4</ele>
        <time>2017-08-13T09:41:31Z</time>
      </trkpt>
      <trkpt lat="42.5058" lon="-0.15053">
        <ele>1307.5</ele>
        <time>2017-08-13T09:41:32Z</time>
      </trkpt>
      <trkpt lat="42.50583" lon="-0.15049">
        <ele>1305</ele>
        <time>2017-08-13T09:41:33Z</time>
      </trkpt>
      <trkpt lat="42.50585" lon="-0.15045">
        <ele>1304.3</ele>
        <time>2017-08-13T09:41:34Z</time>
      </trkpt>
      <trkpt lat="42.50588" lon="-0.1504">
        <ele>1303.6</ele>
        <time>2017-08-13T09:41:35Z</time>
      </trkpt>
      <trkpt lat="42.5059" lon="-0.15036">
        <ele>1303.4</ele>
        <time>2017-08-13T09:41:36Z</time>
      </trkpt>
      <trkpt lat="42.50593" lon="-0.15031">
        <ele>1300.4</ele>
        <time>2017-08-13T09:41:38Z</time>
      </trkpt>
      <trkpt lat="42.50595" lon="-0.15027">
        <ele>1300.5</ele>
        <time>2017-08-13T09:41:40Z</time>
      </trkpt>
      <trkpt lat="42.50598" lon="-0.15024">
        <ele>1300.3</ele>
        <time>2017-08-13T09:41:41Z</time>
      </trkpt>
      <trkpt lat="42.506" lon="-0.15022">
        <ele>1303</ele>
        <time>2017-08-13T09:41:42Z</time>
      </trkpt>
      <trkpt lat="42.50603" lon="-0.1502">
        <ele>1301.5</ele>
        <time>2017-08-13T09:41:43Z</time>
      </trkpt>
      <trkpt lat="42.50606" lon="-0.15017">
        <ele>1303.3</ele>
        <time>2017-08-13T09:41:44Z</time>
      </trkpt>
      <trkpt lat="42.50609" lon="-0.15015">
        <ele>1300.3</ele>
        <time>2017-08-13T09:41:46Z</time>
      </trkpt>
      <trkpt lat="42.50612" lon="-0.15013">
        <ele>1301.3</ele>
        <time>2017-08-13T09:41:48Z</time>
      </trkpt>
      <trkpt lat="42.50615" lon="-0.15011">
        <ele>1297.7</ele>
        <time>2017-08-13T09:41:56Z</time>
      </trkpt>
      <trkpt lat="42.50619" lon="-0.15008">
        <ele>1298.5</ele>
        <time>2017-08-13T09:41:58Z</time>
      </trkpt>
      <trkpt lat="42.50621" lon="-0.15006">
        <ele>1294.5</ele>
        <time>2017-08-13T09:41:59Z</time>
      </trkpt>
      <trkpt lat="42.50623" lon="-0.15003">
        <ele>1292.1</ele>
        <time>2017-08-13T09:42:00Z</time>
      </trkpt>
      <trkpt lat="42.50626" lon="-0.15">
        <ele>1293</ele>
        <time>2017-08-13T09:42:01Z</time>
      </trkpt>
      <trkpt lat="42.50629" lon="-0.14997">
        <ele>1291.3</ele>
        <time>2017-08-13T09:42:02Z</time>
      </trkpt>
      <trkpt lat="42.50631" lon="-0.14993">
        <ele>1289.7</ele>
        <time>2017-08-13T09:42:03Z</time>
      </trkpt>
      <trkpt lat="42.50634" lon="-0.14989">
        <ele>1287.9</ele>
        <time>2017-08-13T09:42:04Z</time>
      </trkpt>
      <trkpt lat="42.50637" lon="-0.14986">
        <ele>1287.9</ele>
        <time>2017-08-13T09:42:05Z</time>
      </trkpt>
      <trkpt lat="42.5064" lon="-0.14984">
        <ele>1286.1</ele>
        <time>2017-08-13T09:42:06Z</time>
      </trkpt>
      <trkpt lat="42.50644" lon="-0.14982">
        <ele>1285.4</ele>
        <time>2017-08-13T09:42:07Z</time>
      </trkpt>
      <trkpt lat="42.50648" lon="-0.1498">
        <ele>1286.6</ele>
        <time>2017-08-13T09:42:08Z</time>
      </trkpt>
      <trkpt lat="42.50652" lon="-0.14978">
        <ele>1288</ele>
        <time>2017-08-13T09:42:09Z</time>
      </trkpt>
      <trkpt lat="42.50657" lon="-0.14976">
        <ele>1288.4</ele>
        <time>2017-08-13T09:42:10Z</time>
      </trkpt>
      <trkpt lat="42.5066" lon="-0.14975">
        <ele>1289.6</ele>
        <time>2017-08-13T09:42:11Z</time>
      </trkpt>
      <trkpt lat="42.50663" lon="-0.14974">
        <ele>1290.7</ele>
        <time>2017-08-13T09:42:12Z</time>
      </trkpt>
      <trkpt lat="42.50668" lon="-0.14973">
        <ele>1291.6</ele>
        <time>2017-08-13T09:42:14Z</time>
      </trkpt>
      <trkpt lat="42.50671" lon="-0.14973">
        <ele>1290.3</ele>
        <time>2017-08-13T09:42:15Z</time>
      </trkpt>
      <trkpt lat="42.50674" lon="-0.14972">
        <ele>1291.1</ele>
        <time>2017-08-13T09:42:16Z</time>
      </trkpt>
      <trkpt lat="42.50677" lon="-0.1497">
        <ele>1291.9</ele>
        <time>2017-08-13T09:42:17Z</time>
      </trkpt>
      <trkpt lat="42.50679" lon="-0.14966">
        <ele>1290.5</ele>
        <time>2017-08-13T09:42:18Z</time>
      </trkpt>
      <trkpt lat="42.50681" lon="-0.14963">
        <ele>1288.4</ele>
        <time>2017-08-13T09:42:19Z</time>
      </trkpt>
      <trkpt lat="42.50683" lon="-0.14958">
        <ele>1286.8</ele>
        <time>2017-08-13T09:42:20Z</time>
      </trkpt>
      <trkpt lat="42.50685" lon="-0.14954">
        <ele>1285.2</ele>
        <time>2017-08-13T09:42:21Z</time>
      </trkpt>
      <trkpt lat="42.50687" lon="-0.14951">
        <ele>1283.2</ele>
        <time>2017-08-13T09:42:22Z</time>
      </trkpt>
      <trkpt lat="42.50688" lon="-0.14948">
        <ele>1283.6</ele>
        <time>2017-08-13T09:42:23Z</time>
      </trkpt>
      <trkpt lat="42.5069" lon="-0.14945">
        <ele>1282</ele>
        <time>2017-08-13T09:42:24Z</time>
      </trkpt>
      <trkpt lat="42.50692" lon="-0.14941">
        <ele>1280.7</ele>
        <time>2017-08-13T09:42:25Z</time>
      </trkpt>
      <trkpt lat="42.50693" lon="-0.14938">
        <ele>1279</ele>
        <time>2017-08-13T09:42:26Z</time>
      </trkpt>
      <trkpt lat="42.50695" lon="-0.14935">
        <ele>1277.1</ele>
        <time>2017-08-13T09:42:27Z</time>
      </trkpt>
      <trkpt lat="42.50697" lon="-0.14932">
        <ele>1277.1</ele>
        <time>2017-08-13T09:42:28Z</time>
      </trkpt>
      <trkpt lat="42.50701" lon="-0.14928">
        <ele>1275</ele>
        <time>2017-08-13T09:42:30Z</time>
      </trkpt>
      <trkpt lat="42.50705" lon="-0.14925">
        <ele>1273</ele>
        <time>2017-08-13T09:42:32Z</time>
      </trkpt>
      <trkpt lat="42.50708" lon="-0.14923">
        <ele>1273.1</ele>
        <time>2017-08-13T09:42:34Z</time>
      </trkpt>
      <trkpt lat="42.50711" lon="-0.14921">
        <ele>1271.2</ele>
        <time>2017-08-13T09:42:36Z</time>
      </trkpt>
      <trkpt lat="42.50716" lon="-0.14919">
        <ele>1271.5</ele>
        <time>2017-08-13T09:42:38Z</time>
      </trkpt>
      <trkpt lat="42.5072" lon="-0.14915">
        <ele>1270.2</ele>
        <time>2017-08-13T09:42:40Z</time>
      </trkpt>
      <trkpt lat="42.50723" lon="-0.14913">
        <ele>1268.5</ele>
        <time>2017-08-13T09:42:41Z</time>
      </trkpt>
      <trkpt lat="42.50727" lon="-0.1491">
        <ele>1269.1</ele>
        <time>2017-08-13T09:42:42Z</time>
      </trkpt>
      <trkpt lat="42.50729" lon="-0.14908">
        <ele>1267.6</ele>
        <time>2017-08-13T09:42:43Z</time>
      </trkpt>
      <trkpt lat="42.50732" lon="-0.14905">
        <ele>1268.7</ele>
        <time>2017-08-13T09:42:44Z</time>
      </trkpt>
      <trkpt lat="42.50735" lon="-0.14903">
        <ele>1267.4</ele>
        <time>2017-08-13T09:42:45Z</time>
      </trkpt>
      <trkpt lat="42.50739" lon="-0.14902">
        <ele>1268.7</ele>
        <time>2017-08-13T09:42:46Z</time>
      </trkpt>
      <trkpt lat="42.50743" lon="-0.14902">
        <ele>1270.1</ele>
        <time>2017-08-13T09:42:47Z</time>
      </trkpt>
      <trkpt lat="42.50748" lon="-0.14902">
        <ele>1271.6</ele>
        <time>2017-08-13T09:42:48Z</time>
      </trkpt>
      <trkpt lat="42.50752" lon="-0.14902">
        <ele>1274.4</ele>
        <time>2017-08-13T09:42:49Z</time>
      </trkpt>
      <trkpt lat="42.50755" lon="-0.14901">
        <ele>1275.9</ele>
        <time>2017-08-13T09:42:50Z</time>
      </trkpt>
      <trkpt lat="42.50759" lon="-0.14899">
        <ele>1274.8</ele>
        <time>2017-08-13T09:42:52Z</time>
      </trkpt>
      <trkpt lat="42.50764" lon="-0.14896">
        <ele>1278.1</ele>
        <time>2017-08-13T09:42:54Z</time>
      </trkpt>
      <trkpt lat="42.50767" lon="-0.14895">
        <ele>1277.3</ele>
        <time>2017-08-13T09:42:55Z</time>
      </trkpt>
      <trkpt lat="42.5077" lon="-0.14893">
        <ele>1277.3</ele>
        <time>2017-08-13T09:42:56Z</time>
      </trkpt>
      <trkpt lat="42.50773" lon="-0.14892">
        <ele>1276.6</ele>
        <time>2017-08-13T09:42:57Z</time>
      </trkpt>
      <trkpt lat="42.50776" lon="-0.1489">
        <ele>1278</ele>
        <time>2017-08-13T09:42:58Z</time>
      </trkpt>
      <trkpt lat="42.50779" lon="-0.14888">
        <ele>1279.3</ele>
        <time>2017-08-13T09:42:59Z</time>
      </trkpt>
      <trkpt lat="42.50783" lon="-0.14886">
        <ele>1279.8</ele>
        <time>2017-08-13T09:43:01Z</time>
      </trkpt>
      <trkpt lat="42.50788" lon="-0.14885">
        <ele>1281.2</ele>
        <time>2017-08-13T09:43:03Z</time>
      </trkpt>
      <trkpt lat="42.50794" lon="-0.14884">
        <ele>1284</ele>
        <time>2017-08-13T09:43:05Z</time>
      </trkpt>
      <trkpt lat="42.50797" lon="-0.14882">
        <ele>1283.5</ele>
        <time>2017-08-13T09:43:06Z</time>
      </trkpt>
      <trkpt lat="42.50799" lon="-0.1488">
        <ele>1284.9</ele>
        <time>2017-08-13T09:43:07Z</time>
      </trkpt>
      <trkpt lat="42.50801" lon="-0.14874">
        <ele>1280.9</ele>
        <time>2017-08-13T09:43:09Z</time>
      </trkpt>
      <trkpt lat="42.50801" lon="-0.14868">
        <ele>1279</ele>
        <time>2017-08-13T09:43:11Z</time>
      </trkpt>
      <trkpt lat="42.508" lon="-0.14865">
        <ele>1277.3</ele>
        <time>2017-08-13T09:43:15Z</time>
      </trkpt>
      <trkpt lat="42.50797" lon="-0.14866">
        <ele>1277.5</ele>
        <time>2017-08-13T09:43:38Z</time>
      </trkpt>
      <trkpt lat="42.50794" lon="-0.14864">
        <ele>1274.1</ele>
        <time>2017-08-13T09:43:44Z</time>
      </trkpt>
      <trkpt lat="42.50793" lon="-0.14859">
        <ele>1272.6</ele>
        <time>2017-08-13T09:43:46Z</time>
      </trkpt>
      <trkpt lat="42.50791" lon="-0.14853">
        <ele>1269.3</ele>
        <time>2017-08-13T09:43:48Z</time>
      </trkpt>
      <trkpt lat="42.5079" lon="-0.14846">
        <ele>1266.3</ele>
        <time>2017-08-13T09:43:50Z</time>
      </trkpt>
      <trkpt lat="42.50789" lon="-0.14842">
        <ele>1265.1</ele>
        <time>2017-08-13T09:43:51Z</time>
      </trkpt>
      <trkpt lat="42.50789" lon="-0.14838">
        <ele>1264.2</ele>
        <time>2017-08-13T09:43:57Z</time>
      </trkpt>
      <trkpt lat="42.5079" lon="-0.14835">
        <ele>1263.7</ele>
        <time>2017-08-13T09:44:10Z</time>
      </trkpt>
      <trkpt lat="42.50791" lon="-0.1483">
        <ele>1263.5</ele>
        <time>2017-08-13T09:44:15Z</time>
      </trkpt>
      <trkpt lat="42.50792" lon="-0.14825">
        <ele>1263.4</ele>
        <time>2017-08-13T09:44:17Z</time>
      </trkpt>
      <trkpt lat="42.50794" lon="-0.1482">
        <ele>1265.2</ele>
        <time>2017-08-13T09:44:19Z</time>
      </trkpt>
      <trkpt lat="42.50797" lon="-0.14815">
        <ele>1267.1</ele>
        <time>2017-08-13T09:44:21Z</time>
      </trkpt>
      <trkpt lat="42.508" lon="-0.14813">
        <ele>1268.8</ele>
        <time>2017-08-13T09:44:24Z</time>
      </trkpt>
      <trkpt lat="42.50803" lon="-0.14809">
        <ele>1270.1</ele>
        <time>2017-08-13T09:44:28Z</time>
      </trkpt>
      <trkpt lat="42.50805" lon="-0.14806">
        <ele>1270.1</ele>
        <time>2017-08-13T09:44:30Z</time>
      </trkpt>
      <trkpt lat="42.50805" lon="-0.14802">
        <ele>1271.2</ele>
        <time>2017-08-13T09:44:32Z</time>
      </trkpt>
      <trkpt lat="42.50804" lon="-0.14797">
        <ele>1270.2</ele>
        <time>2017-08-13T09:44:34Z</time>
      </trkpt>
      <trkpt lat="42.50802" lon="-0.14792">
        <ele>1270.3</ele>
        <time>2017-08-13T09:44:36Z</time>
      </trkpt>
      <trkpt lat="42.50797" lon="-0.14788">
        <ele>1267.8</ele>
        <time>2017-08-13T09:44:38Z</time>
      </trkpt>
      <trkpt lat="42.50795" lon="-0.14787">
        <ele>1266.3</ele>
        <time>2017-08-13T09:44:39Z</time>
      </trkpt>
      <trkpt lat="42.50792" lon="-0.14786">
        <ele>1264.7</ele>
        <time>2017-08-13T09:44:40Z</time>
      </trkpt>
      <trkpt lat="42.50789" lon="-0.14784">
        <ele>1265</ele>
        <time>2017-08-13T09:44:41Z</time>
      </trkpt>
      <trkpt lat="42.50786" lon="-0.14781">
        <ele>1263.5</ele>
        <time>2017-08-13T09:44:42Z</time>
      </trkpt>
      <trkpt lat="42.50783" lon="-0.14778">
        <ele>1262.5</ele>
        <time>2017-08-13T09:44:43Z</time>
      </trkpt>
      <trkpt lat="42.5078" lon="-0.14774">
        <ele>1261.8</ele>
        <time>2017-08-13T09:44:44Z</time>
      </trkpt>
      <trkpt lat="42.50777" lon="-0.1477">
        <ele>1261.3</ele>
        <time>2017-08-13T09:44:45Z</time>
      </trkpt>
      <trkpt lat="42.50775" lon="-0.14766">
        <ele>1260.9</ele>
        <time>2017-08-13T09:44:46Z</time>
      </trkpt>
      <trkpt lat="42.50772" lon="-0.14762">
        <ele>1260.3</ele>
        <time>2017-08-13T09:44:47Z</time>
      </trkpt>
      <trkpt lat="42.5077" lon="-0.14759">
        <ele>1260.3</ele>
        <time>2017-08-13T09:44:48Z</time>
      </trkpt>
      <trkpt lat="42.50769" lon="-0.14756">
        <ele>1259.7</ele>
        <time>2017-08-13T09:44:50Z</time>
      </trkpt>
      <trkpt lat="42.50767" lon="-0.14751">
        <ele>1261</ele>
        <time>2017-08-13T09:44:52Z</time>
      </trkpt>
      <trkpt lat="42.50764" lon="-0.14744">
        <ele>1261.8</ele>
        <time>2017-08-13T09:44:54Z</time>
      </trkpt>
      <trkpt lat="42.50762" lon="-0.14741">
        <ele>1261.2</ele>
        <time>2017-08-13T09:44:55Z</time>
      </trkpt>
      <trkpt lat="42.50761" lon="-0.14737">
        <ele>1261.2</ele>
        <time>2017-08-13T09:44:56Z</time>
      </trkpt>
      <trkpt lat="42.50759" lon="-0.14733">
        <ele>1260.7</ele>
        <time>2017-08-13T09:44:57Z</time>
      </trkpt>
      <trkpt lat="42.50758" lon="-0.1473">
        <ele>1262.4</ele>
        <time>2017-08-13T09:44:58Z</time>
      </trkpt>
      <trkpt lat="42.50756" lon="-0.14726">
        <ele>1261.9</ele>
        <time>2017-08-13T09:44:59Z</time>
      </trkpt>
      <trkpt lat="42.50754" lon="-0.14722">
        <ele>1263.5</ele>
        <time>2017-08-13T09:45:00Z</time>
      </trkpt>
      <trkpt lat="42.50753" lon="-0.14717">
        <ele>1263.1</ele>
        <time>2017-08-13T09:45:01Z</time>
      </trkpt>
      <trkpt lat="42.50751" lon="-0.14714">
        <ele>1264.8</ele>
        <time>2017-08-13T09:45:02Z</time>
      </trkpt>
      <trkpt lat="42.5075" lon="-0.1471">
        <ele>1264.8</ele>
        <time>2017-08-13T09:45:03Z</time>
      </trkpt>
      <trkpt lat="42.50749" lon="-0.14707">
        <ele>1266.5</ele>
        <time>2017-08-13T09:45:04Z</time>
      </trkpt>
      <trkpt lat="42.50747" lon="-0.14703">
        <ele>1264.7</ele>
        <time>2017-08-13T09:45:06Z</time>
      </trkpt>
      <trkpt lat="42.50745" lon="-0.14699">
        <ele>1266.2</ele>
        <time>2017-08-13T09:45:08Z</time>
      </trkpt>
      <trkpt lat="42.50743" lon="-0.14695">
        <ele>1265.5</ele>
        <time>2017-08-13T09:45:10Z</time>
      </trkpt>
      <trkpt lat="42.5074" lon="-0.14691">
        <ele>1264.2</ele>
        <time>2017-08-13T09:45:12Z</time>
      </trkpt>
      <trkpt lat="42.50735" lon="-0.14686">
        <ele>1262.8</ele>
        <time>2017-08-13T09:45:14Z</time>
      </trkpt>
      <trkpt lat="42.50733" lon="-0.14683">
        <ele>1261.5</ele>
        <time>2017-08-13T09:45:15Z</time>
      </trkpt>
      <trkpt lat="42.5073" lon="-0.14679">
        <ele>1260.4</ele>
        <time>2017-08-13T09:45:16Z</time>
      </trkpt>
      <trkpt lat="42.50727" lon="-0.14674">
        <ele>1259.6</ele>
        <time>2017-08-13T09:45:17Z</time>
      </trkpt>
      <trkpt lat="42.50724" lon="-0.1467">
        <ele>1258.9</ele>
        <time>2017-08-13T09:45:18Z</time>
      </trkpt>
      <trkpt lat="42.50721" lon="-0.14666">
        <ele>1258.4</ele>
        <time>2017-08-13T09:45:19Z</time>
      </trkpt>
      <trkpt lat="42.50718" lon="-0.14663">
        <ele>1257.8</ele>
        <time>2017-08-13T09:45:20Z</time>
      </trkpt>
      <trkpt lat="42.50715" lon="-0.1466">
        <ele>1257.2</ele>
        <time>2017-08-13T09:45:21Z</time>
      </trkpt>
      <trkpt lat="42.50712" lon="-0.14657">
        <ele>1255.3</ele>
        <time>2017-08-13T09:45:22Z</time>
      </trkpt>
      <trkpt lat="42.5071" lon="-0.14653">
        <ele>1254.7</ele>
        <time>2017-08-13T09:45:23Z</time>
      </trkpt>
      <trkpt lat="42.50707" lon="-0.14649">
        <ele>1254</ele>
        <time>2017-08-13T09:45:24Z</time>
      </trkpt>
      <trkpt lat="42.50703" lon="-0.14644">
        <ele>1253.3</ele>
        <time>2017-08-13T09:45:25Z</time>
      </trkpt>
      <trkpt lat="42.50699" lon="-0.14639">
        <ele>1252.6</ele>
        <time>2017-08-13T09:45:26Z</time>
      </trkpt>
      <trkpt lat="42.50696" lon="-0.14635">
        <ele>1251.9</ele>
        <time>2017-08-13T09:45:27Z</time>
      </trkpt>
      <trkpt lat="42.50692" lon="-0.14631">
        <ele>1251.5</ele>
        <time>2017-08-13T09:45:28Z</time>
      </trkpt>
      <trkpt lat="42.50689" lon="-0.14627">
        <ele>1251.1</ele>
        <time>2017-08-13T09:45:29Z</time>
      </trkpt>
      <trkpt lat="42.50687" lon="-0.14623">
        <ele>1250.5</ele>
        <time>2017-08-13T09:45:30Z</time>
      </trkpt>
      <trkpt lat="42.50684" lon="-0.14619">
        <ele>1249.9</ele>
        <time>2017-08-13T09:45:31Z</time>
      </trkpt>
      <trkpt lat="42.50681" lon="-0.14615">
        <ele>1249.1</ele>
        <time>2017-08-13T09:45:32Z</time>
      </trkpt>
      <trkpt lat="42.50678" lon="-0.14611">
        <ele>1249.8</ele>
        <time>2017-08-13T09:45:33Z</time>
      </trkpt>
      <trkpt lat="42.50676" lon="-0.14607">
        <ele>1248.9</ele>
        <time>2017-08-13T09:45:34Z</time>
      </trkpt>
      <trkpt lat="42.50674" lon="-0.14603">
        <ele>1248.1</ele>
        <time>2017-08-13T09:45:35Z</time>
      </trkpt>
      <trkpt lat="42.50673" lon="-0.14599">
        <ele>1249</ele>
        <time>2017-08-13T09:45:36Z</time>
      </trkpt>
      <trkpt lat="42.50671" lon="-0.14595">
        <ele>1248.2</ele>
        <time>2017-08-13T09:45:37Z</time>
      </trkpt>
      <trkpt lat="42.5067" lon="-0.14592">
        <ele>1248.2</ele>
        <time>2017-08-13T09:45:38Z</time>
      </trkpt>
      <trkpt lat="42.50668" lon="-0.14587">
        <ele>1247.4</ele>
        <time>2017-08-13T09:45:39Z</time>
      </trkpt>
      <trkpt lat="42.50666" lon="-0.14583">
        <ele>1248</ele>
        <time>2017-08-13T09:45:40Z</time>
      </trkpt>
      <trkpt lat="42.50663" lon="-0.14578">
        <ele>1247.6</ele>
        <time>2017-08-13T09:45:41Z</time>
      </trkpt>
      <trkpt lat="42.50661" lon="-0.14573">
        <ele>1246.7</ele>
        <time>2017-08-13T09:45:42Z</time>
      </trkpt>
      <trkpt lat="42.50658" lon="-0.14567">
        <ele>1245.9</ele>
        <time>2017-08-13T09:45:43Z</time>
      </trkpt>
      <trkpt lat="42.50656" lon="-0.14561">
        <ele>1245.1</ele>
        <time>2017-08-13T09:45:44Z</time>
      </trkpt>
      <trkpt lat="42.50653" lon="-0.14555">
        <ele>1246.8</ele>
        <time>2017-08-13T09:45:45Z</time>
      </trkpt>
      <trkpt lat="42.50651" lon="-0.14549">
        <ele>1245.8</ele>
        <time>2017-08-13T09:45:46Z</time>
      </trkpt>
      <trkpt lat="42.50649" lon="-0.14543">
        <ele>1245.3</ele>
        <time>2017-08-13T09:45:47Z</time>
      </trkpt>
      <trkpt lat="42.50647" lon="-0.14539">
        <ele>1245.9</ele>
        <time>2017-08-13T09:45:48Z</time>
      </trkpt>
      <trkpt lat="42.50646" lon="-0.14534">
        <ele>1244.5</ele>
        <time>2017-08-13T09:45:49Z</time>
      </trkpt>
      <trkpt lat="42.50645" lon="-0.14529">
        <ele>1244.8</ele>
        <time>2017-08-13T09:45:50Z</time>
      </trkpt>
      <trkpt lat="42.50643" lon="-0.14523">
        <ele>1243.4</ele>
        <time>2017-08-13T09:45:51Z</time>
      </trkpt>
      <trkpt lat="42.5064" lon="-0.14517">
        <ele>1244.3</ele>
        <time>2017-08-13T09:45:52Z</time>
      </trkpt>
      <trkpt lat="42.50638" lon="-0.14511">
        <ele>1243.4</ele>
        <time>2017-08-13T09:45:53Z</time>
      </trkpt>
      <trkpt lat="42.50636" lon="-0.14505">
        <ele>1242.6</ele>
        <time>2017-08-13T09:45:54Z</time>
      </trkpt>
      <trkpt lat="42.50634" lon="-0.145">
        <ele>1243.6</ele>
        <time>2017-08-13T09:45:55Z</time>
      </trkpt>
      <trkpt lat="42.50632" lon="-0.14495">
        <ele>1242.7</ele>
        <time>2017-08-13T09:45:56Z</time>
      </trkpt>
      <trkpt lat="42.50629" lon="-0.14491">
        <ele>1241.7</ele>
        <time>2017-08-13T09:45:57Z</time>
      </trkpt>
      <trkpt lat="42.50627" lon="-0.14486">
        <ele>1240.6</ele>
        <time>2017-08-13T09:45:58Z</time>
      </trkpt>
      <trkpt lat="42.50623" lon="-0.14482">
        <ele>1239.6</ele>
        <time>2017-08-13T09:45:59Z</time>
      </trkpt>
      <trkpt lat="42.5062" lon="-0.14477">
        <ele>1238.7</ele>
        <time>2017-08-13T09:46:00Z</time>
      </trkpt>
      <trkpt lat="42.50616" lon="-0.14472">
        <ele>1237.9</ele>
        <time>2017-08-13T09:46:01Z</time>
      </trkpt>
      <trkpt lat="42.50613" lon="-0.14468">
        <ele>1237.3</ele>
        <time>2017-08-13T09:46:02Z</time>
      </trkpt>
      <trkpt lat="42.50609" lon="-0.14464">
        <ele>1237.1</ele>
        <time>2017-08-13T09:46:03Z</time>
      </trkpt>
      <trkpt lat="42.50605" lon="-0.1446">
        <ele>1235.7</ele>
        <time>2017-08-13T09:46:04Z</time>
      </trkpt>
      <trkpt lat="42.50601" lon="-0.14457">
        <ele>1235.3</ele>
        <time>2017-08-13T09:46:05Z</time>
      </trkpt>
      <trkpt lat="42.50597" lon="-0.14455">
        <ele>1233.9</ele>
        <time>2017-08-13T09:46:06Z</time>
      </trkpt>
      <trkpt lat="42.50594" lon="-0.14454">
        <ele>1232.6</ele>
        <time>2017-08-13T09:46:07Z</time>
      </trkpt>
      <trkpt lat="42.50591" lon="-0.14453">
        <ele>1232.2</ele>
        <time>2017-08-13T09:46:08Z</time>
      </trkpt>
      <trkpt lat="42.50588" lon="-0.14451">
        <ele>1231</ele>
        <time>2017-08-13T09:46:09Z</time>
      </trkpt>
      <trkpt lat="42.50584" lon="-0.1445">
        <ele>1230.8</ele>
        <time>2017-08-13T09:46:10Z</time>
      </trkpt>
      <trkpt lat="42.50581" lon="-0.14448">
        <ele>1229.9</ele>
        <time>2017-08-13T09:46:11Z</time>
      </trkpt>
      <trkpt lat="42.50578" lon="-0.14446">
        <ele>1228.9</ele>
        <time>2017-08-13T09:46:12Z</time>
      </trkpt>
      <trkpt lat="42.50574" lon="-0.14445">
        <ele>1228.7</ele>
        <time>2017-08-13T09:46:13Z</time>
      </trkpt>
      <trkpt lat="42.50571" lon="-0.14444">
        <ele>1227.5</ele>
        <time>2017-08-13T09:46:14Z</time>
      </trkpt>
      <trkpt lat="42.50567" lon="-0.14443">
        <ele>1225.2</ele>
        <time>2017-08-13T09:46:15Z</time>
      </trkpt>
      <trkpt lat="42.50563" lon="-0.14441">
        <ele>1224.2</ele>
        <time>2017-08-13T09:46:16Z</time>
      </trkpt>
      <trkpt lat="42.50559" lon="-0.14439">
        <ele>1224.3</ele>
        <time>2017-08-13T09:46:17Z</time>
      </trkpt>
      <trkpt lat="42.50555" lon="-0.14436">
        <ele>1224.5</ele>
        <time>2017-08-13T09:46:18Z</time>
      </trkpt>
      <trkpt lat="42.50552" lon="-0.14434">
        <ele>1223.8</ele>
        <time>2017-08-13T09:46:19Z</time>
      </trkpt>
      <trkpt lat="42.5055" lon="-0.14431">
        <ele>1223.9</ele>
        <time>2017-08-13T09:46:20Z</time>
      </trkpt>
      <trkpt lat="42.50548" lon="-0.14427">
        <ele>1223.8</ele>
        <time>2017-08-13T09:46:21Z</time>
      </trkpt>
      <trkpt lat="42.50547" lon="-0.14424">
        <ele>1223.8</ele>
        <time>2017-08-13T09:46:22Z</time>
      </trkpt>
      <trkpt lat="42.50547" lon="-0.1442">
        <ele>1224.5</ele>
        <time>2017-08-13T09:46:39Z</time>
      </trkpt>
      <trkpt lat="42.50544" lon="-0.14416">
        <ele>1223.9</ele>
        <time>2017-08-13T09:46:41Z</time>
      </trkpt>
      <trkpt lat="42.50542" lon="-0.14413">
        <ele>1223.2</ele>
        <time>2017-08-13T09:46:42Z</time>
      </trkpt>
      <trkpt lat="42.5054" lon="-0.14409">
        <ele>1223.7</ele>
        <time>2017-08-13T09:46:43Z</time>
      </trkpt>
      <trkpt lat="42.50538" lon="-0.14405">
        <ele>1223</ele>
        <time>2017-08-13T09:46:44Z</time>
      </trkpt>
      <trkpt lat="42.50536" lon="-0.14401">
        <ele>1222.3</ele>
        <time>2017-08-13T09:46:45Z</time>
      </trkpt>
      <trkpt lat="42.50534" lon="-0.14396">
        <ele>1222.7</ele>
        <time>2017-08-13T09:46:46Z</time>
      </trkpt>
      <trkpt lat="42.50531" lon="-0.14392">
        <ele>1221.9</ele>
        <time>2017-08-13T09:46:47Z</time>
      </trkpt>
      <trkpt lat="42.50529" lon="-0.14388">
        <ele>1221.1</ele>
        <time>2017-08-13T09:46:48Z</time>
      </trkpt>
      <trkpt lat="42.50527" lon="-0.14385">
        <ele>1221.4</ele>
        <time>2017-08-13T09:46:49Z</time>
      </trkpt>
      <trkpt lat="42.50524" lon="-0.14381">
        <ele>1220.8</ele>
        <time>2017-08-13T09:46:51Z</time>
      </trkpt>
      <trkpt lat="42.50522" lon="-0.14378">
        <ele>1219.7</ele>
        <time>2017-08-13T09:46:53Z</time>
      </trkpt>
      <trkpt lat="42.5052" lon="-0.14375">
        <ele>1219</ele>
        <time>2017-08-13T09:47:03Z</time>
      </trkpt>
      <trkpt lat="42.50518" lon="-0.14372">
        <ele>1219.5</ele>
        <time>2017-08-13T09:47:08Z</time>
      </trkpt>
      <trkpt lat="42.50516" lon="-0.14369">
        <ele>1218.3</ele>
        <time>2017-08-13T09:47:10Z</time>
      </trkpt>
      <trkpt lat="42.50514" lon="-0.14366">
        <ele>1217.7</ele>
        <time>2017-08-13T09:47:11Z</time>
      </trkpt>
      <trkpt lat="42.50511" lon="-0.14362">
        <ele>1218.3</ele>
        <time>2017-08-13T09:47:12Z</time>
      </trkpt>
      <trkpt lat="42.50509" lon="-0.14358">
        <ele>1217.9</ele>
        <time>2017-08-13T09:47:13Z</time>
      </trkpt>
      <trkpt lat="42.50507" lon="-0.14354">
        <ele>1217.8</ele>
        <time>2017-08-13T09:47:14Z</time>
      </trkpt>
      <trkpt lat="42.50505" lon="-0.14351">
        <ele>1218.6</ele>
        <time>2017-08-13T09:47:15Z</time>
      </trkpt>
      <trkpt lat="42.50503" lon="-0.14348">
        <ele>1217.8</ele>
        <time>2017-08-13T09:47:16Z</time>
      </trkpt>
      <trkpt lat="42.50501" lon="-0.14344">
        <ele>1218</ele>
        <time>2017-08-13T09:47:18Z</time>
      </trkpt>
      <trkpt lat="42.50498" lon="-0.1434">
        <ele>1218.8</ele>
        <time>2017-08-13T09:47:20Z</time>
      </trkpt>
      <trkpt lat="42.50496" lon="-0.14337">
        <ele>1218.8</ele>
        <time>2017-08-13T09:47:22Z</time>
      </trkpt>
      <trkpt lat="42.50495" lon="-0.14333">
        <ele>1219.4</ele>
        <time>2017-08-13T09:47:24Z</time>
      </trkpt>
      <trkpt lat="42.50494" lon="-0.14328">
        <ele>1219</ele>
        <time>2017-08-13T09:47:26Z</time>
      </trkpt>
      <trkpt lat="42.50491" lon="-0.14324">
        <ele>1218.5</ele>
        <time>2017-08-13T09:47:28Z</time>
      </trkpt>
      <trkpt lat="42.50489" lon="-0.14319">
        <ele>1218.9</ele>
        <time>2017-08-13T09:47:30Z</time>
      </trkpt>
      <trkpt lat="42.50486" lon="-0.14313">
        <ele>1218.1</ele>
        <time>2017-08-13T09:47:32Z</time>
      </trkpt>
      <trkpt lat="42.50485" lon="-0.1431">
        <ele>1217.3</ele>
        <time>2017-08-13T09:47:34Z</time>
      </trkpt>
      <trkpt lat="42.50483" lon="-0.14307">
        <ele>1217.5</ele>
        <time>2017-08-13T09:47:40Z</time>
      </trkpt>
      <trkpt lat="42.5048" lon="-0.14304">
        <ele>1216.4</ele>
        <time>2017-08-13T09:47:46Z</time>
      </trkpt>
      <trkpt lat="42.50478" lon="-0.143">
        <ele>1215.8</ele>
        <time>2017-08-13T09:47:49Z</time>
      </trkpt>
      <trkpt lat="42.50475" lon="-0.14296">
        <ele>1215.4</ele>
        <time>2017-08-13T09:47:51Z</time>
      </trkpt>
      <trkpt lat="42.50472" lon="-0.14294">
        <ele>1215.3</ele>
        <time>2017-08-13T09:47:53Z</time>
      </trkpt>
      <trkpt lat="42.5047" lon="-0.14292">
        <ele>1215.3</ele>
        <time>2017-08-13T09:47:55Z</time>
      </trkpt>
      <trkpt lat="42.50467" lon="-0.1429">
        <ele>1215.3</ele>
        <time>2017-08-13T09:47:57Z</time>
      </trkpt>
      <trkpt lat="42.50464" lon="-0.14289">
        <ele>1214.4</ele>
        <time>2017-08-13T09:47:59Z</time>
      </trkpt>
      <trkpt lat="42.5046" lon="-0.14288">
        <ele>1213.4</ele>
        <time>2017-08-13T09:48:01Z</time>
      </trkpt>
      <trkpt lat="42.50457" lon="-0.14286">
        <ele>1212.1</ele>
        <time>2017-08-13T09:48:03Z</time>
      </trkpt>
      <trkpt lat="42.50453" lon="-0.14284">
        <ele>1211.1</ele>
        <time>2017-08-13T09:48:05Z</time>
      </trkpt>
      <trkpt lat="42.5045" lon="-0.14283">
        <ele>1210.1</ele>
        <time>2017-08-13T09:48:07Z</time>
      </trkpt>
      <trkpt lat="42.50446" lon="-0.14279">
        <ele>1210</ele>
        <time>2017-08-13T09:48:09Z</time>
      </trkpt>
      <trkpt lat="42.50442" lon="-0.14275">
        <ele>1209.7</ele>
        <time>2017-08-13T09:48:11Z</time>
      </trkpt>
      <trkpt lat="42.50439" lon="-0.14271">
        <ele>1209.4</ele>
        <time>2017-08-13T09:48:13Z</time>
      </trkpt>
      <trkpt lat="42.50436" lon="-0.14268">
        <ele>1209</ele>
        <time>2017-08-13T09:48:15Z</time>
      </trkpt>
      <trkpt lat="42.50433" lon="-0.14265">
        <ele>1208</ele>
        <time>2017-08-13T09:48:17Z</time>
      </trkpt>
      <trkpt lat="42.50429" lon="-0.14261">
        <ele>1207.5</ele>
        <time>2017-08-13T09:48:19Z</time>
      </trkpt>
      <trkpt lat="42.50425" lon="-0.14259">
        <ele>1206</ele>
        <time>2017-08-13T09:48:21Z</time>
      </trkpt>
      <trkpt lat="42.5042" lon="-0.14258">
        <ele>1205.2</ele>
        <time>2017-08-13T09:48:23Z</time>
      </trkpt>
      <trkpt lat="42.50415" lon="-0.14257">
        <ele>1203.6</ele>
        <time>2017-08-13T09:48:25Z</time>
      </trkpt>
      <trkpt lat="42.50411" lon="-0.14256">
        <ele>1203.1</ele>
        <time>2017-08-13T09:48:27Z</time>
      </trkpt>
      <trkpt lat="42.50408" lon="-0.14253">
        <ele>1202.2</ele>
        <time>2017-08-13T09:48:29Z</time>
      </trkpt>
      <trkpt lat="42.50406" lon="-0.1425">
        <ele>1201.4</ele>
        <time>2017-08-13T09:48:31Z</time>
      </trkpt>
      <trkpt lat="42.50404" lon="-0.14245">
        <ele>1201.8</ele>
        <time>2017-08-13T09:48:33Z</time>
      </trkpt>
      <trkpt lat="42.50403" lon="-0.14242">
        <ele>1201</ele>
        <time>2017-08-13T09:48:34Z</time>
      </trkpt>
      <trkpt lat="42.50401" lon="-0.14236">
        <ele>1201.5</ele>
        <time>2017-08-13T09:48:36Z</time>
      </trkpt>
      <trkpt lat="42.504" lon="-0.1423">
        <ele>1202.3</ele>
        <time>2017-08-13T09:48:38Z</time>
      </trkpt>
      <trkpt lat="42.50399" lon="-0.14226">
        <ele>1201.4</ele>
        <time>2017-08-13T09:48:39Z</time>
      </trkpt>
      <trkpt lat="42.50397" lon="-0.14221">
        <ele>1201.7</ele>
        <time>2017-08-13T09:48:40Z</time>
      </trkpt>
      <trkpt lat="42.50396" lon="-0.14217">
        <ele>1200.7</ele>
        <time>2017-08-13T09:48:41Z</time>
      </trkpt>
      <trkpt lat="42.50393" lon="-0.14212">
        <ele>1199.6</ele>
        <time>2017-08-13T09:48:42Z</time>
      </trkpt>
      <trkpt lat="42.50391" lon="-0.14207">
        <ele>1199.9</ele>
        <time>2017-08-13T09:48:43Z</time>
      </trkpt>
      <trkpt lat="42.50388" lon="-0.14203">
        <ele>1198.7</ele>
        <time>2017-08-13T09:48:44Z</time>
      </trkpt>
      <trkpt lat="42.50386" lon="-0.14199">
        <ele>1197.4</ele>
        <time>2017-08-13T09:48:45Z</time>
      </trkpt>
      <trkpt lat="42.50384" lon="-0.14196">
        <ele>1197.5</ele>
        <time>2017-08-13T09:48:46Z</time>
      </trkpt>
      <trkpt lat="42.50381" lon="-0.14191">
        <ele>1196</ele>
        <time>2017-08-13T09:48:48Z</time>
      </trkpt>
      <trkpt lat="42.50381" lon="-0.14186">
        <ele>1196.1</ele>
        <time>2017-08-13T09:48:55Z</time>
      </trkpt>
      <trkpt lat="42.50379" lon="-0.14182">
        <ele>1194.7</ele>
        <time>2017-08-13T09:48:58Z</time>
      </trkpt>
      <trkpt lat="42.50376" lon="-0.14176">
        <ele>1193.3</ele>
        <time>2017-08-13T09:49:00Z</time>
      </trkpt>
      <trkpt lat="42.50373" lon="-0.14173">
        <ele>1191.9</ele>
        <time>2017-08-13T09:49:01Z</time>
      </trkpt>
      <trkpt lat="42.50371" lon="-0.14171">
        <ele>1192.1</ele>
        <time>2017-08-13T09:49:02Z</time>
      </trkpt>
      <trkpt lat="42.50369" lon="-0.14166">
        <ele>1190.8</ele>
        <time>2017-08-13T09:49:04Z</time>
      </trkpt>
      <trkpt lat="42.50367" lon="-0.1416">
        <ele>1189.4</ele>
        <time>2017-08-13T09:49:06Z</time>
      </trkpt>
      <trkpt lat="42.50365" lon="-0.14154">
        <ele>1189.4</ele>
        <time>2017-08-13T09:49:08Z</time>
      </trkpt>
      <trkpt lat="42.50364" lon="-0.14148">
        <ele>1188</ele>
        <time>2017-08-13T09:49:10Z</time>
      </trkpt>
      <trkpt lat="42.50365" lon="-0.14144">
        <ele>1187.9</ele>
        <time>2017-08-13T09:49:12Z</time>
      </trkpt>
      <trkpt lat="42.50363" lon="-0.14136">
        <ele>1187.8</ele>
        <time>2017-08-13T09:49:14Z</time>
      </trkpt>
      <trkpt lat="42.50363" lon="-0.14131">
        <ele>1187.8</ele>
        <time>2017-08-13T09:49:15Z</time>
      </trkpt>
      <trkpt lat="42.50362" lon="-0.14125">
        <ele>1187.9</ele>
        <time>2017-08-13T09:49:16Z</time>
      </trkpt>
      <trkpt lat="42.50362" lon="-0.14119">
        <ele>1187.9</ele>
        <time>2017-08-13T09:49:17Z</time>
      </trkpt>
      <trkpt lat="42.50362" lon="-0.14114">
        <ele>1187.8</ele>
        <time>2017-08-13T09:49:18Z</time>
      </trkpt>
      <trkpt lat="42.50362" lon="-0.1411">
        <ele>1186.6</ele>
        <time>2017-08-13T09:49:19Z</time>
      </trkpt>
      <trkpt lat="42.50362" lon="-0.14105">
        <ele>1187.6</ele>
        <time>2017-08-13T09:49:20Z</time>
      </trkpt>
      <trkpt lat="42.50363" lon="-0.14101">
        <ele>1187.4</ele>
        <time>2017-08-13T09:49:21Z</time>
      </trkpt>
      <trkpt lat="42.50365" lon="-0.14096">
        <ele>1187.1</ele>
        <time>2017-08-13T09:49:22Z</time>
      </trkpt>
      <trkpt lat="42.50366" lon="-0.14092">
        <ele>1188.2</ele>
        <time>2017-08-13T09:49:23Z</time>
      </trkpt>
      <trkpt lat="42.50366" lon="-0.14087">
        <ele>1188.1</ele>
        <time>2017-08-13T09:49:24Z</time>
      </trkpt>
      <trkpt lat="42.50366" lon="-0.14082">
        <ele>1188</ele>
        <time>2017-08-13T09:49:26Z</time>
      </trkpt>
      <trkpt lat="42.50366" lon="-0.14077">
        <ele>1188</ele>
        <time>2017-08-13T09:49:28Z</time>
      </trkpt>
      <trkpt lat="42.50367" lon="-0.14073">
        <ele>1188.1</ele>
        <time>2017-08-13T09:49:38Z</time>
      </trkpt>
      <trkpt lat="42.50369" lon="-0.1407">
        <ele>1189.4</ele>
        <time>2017-08-13T09:49:45Z</time>
      </trkpt>
      <trkpt lat="42.50368" lon="-0.14066">
        <ele>1189.4</ele>
        <time>2017-08-13T09:49:50Z</time>
      </trkpt>
      <trkpt lat="42.50367" lon="-0.14062">
        <ele>1188.1</ele>
        <time>2017-08-13T09:49:53Z</time>
      </trkpt>
      <trkpt lat="42.50367" lon="-0.14053">
        <ele>1187.8</ele>
        <time>2017-08-13T09:50:14Z</time>
      </trkpt>
      <trkpt lat="42.50367" lon="-0.14049">
        <ele>1187.5</ele>
        <time>2017-08-13T09:50:18Z</time>
      </trkpt>
      <trkpt lat="42.50368" lon="-0.14045">
        <ele>1187.1</ele>
        <time>2017-08-13T09:50:21Z</time>
      </trkpt>
      <trkpt lat="42.50368" lon="-0.14041">
        <ele>1186.7</ele>
        <time>2017-08-13T09:50:23Z</time>
      </trkpt>
      <trkpt lat="42.50369" lon="-0.14036">
        <ele>1187.3</ele>
        <time>2017-08-13T09:50:25Z</time>
      </trkpt>
      <trkpt lat="42.5037" lon="-0.14031">
        <ele>1186.9</ele>
        <time>2017-08-13T09:50:27Z</time>
      </trkpt>
      <trkpt lat="42.50372" lon="-0.14027">
        <ele>1187.7</ele>
        <time>2017-08-13T09:50:29Z</time>
      </trkpt>
      <trkpt lat="42.50373" lon="-0.14023">
        <ele>1187.4</ele>
        <time>2017-08-13T09:50:31Z</time>
      </trkpt>
      <trkpt lat="42.50373" lon="-0.14019">
        <ele>1187.2</ele>
        <time>2017-08-13T09:50:32Z</time>
      </trkpt>
      <trkpt lat="42.50372" lon="-0.14014">
        <ele>1187</ele>
        <time>2017-08-13T09:50:33Z</time>
      </trkpt>
      <trkpt lat="42.50372" lon="-0.14008">
        <ele>1186.7</ele>
        <time>2017-08-13T09:50:34Z</time>
      </trkpt>
      <trkpt lat="42.50372" lon="-0.14002">
        <ele>1186.3</ele>
        <time>2017-08-13T09:50:35Z</time>
      </trkpt>
      <trkpt lat="42.50373" lon="-0.13995">
        <ele>1186</ele>
        <time>2017-08-13T09:50:36Z</time>
      </trkpt>
      <trkpt lat="42.50374" lon="-0.13989">
        <ele>1185.3</ele>
        <time>2017-08-13T09:50:37Z</time>
      </trkpt>
      <trkpt lat="42.50375" lon="-0.13983">
        <ele>1185.6</ele>
        <time>2017-08-13T09:50:38Z</time>
      </trkpt>
      <trkpt lat="42.50377" lon="-0.13979">
        <ele>1185.1</ele>
        <time>2017-08-13T09:50:39Z</time>
      </trkpt>
      <trkpt lat="42.5038" lon="-0.13975">
        <ele>1185.4</ele>
        <time>2017-08-13T09:50:41Z</time>
      </trkpt>
      <trkpt lat="42.50382" lon="-0.13971">
        <ele>1185.7</ele>
        <time>2017-08-13T09:50:48Z</time>
      </trkpt>
      <trkpt lat="42.50383" lon="-0.13967">
        <ele>1185.4</ele>
        <time>2017-08-13T09:50:50Z</time>
      </trkpt>
      <trkpt lat="42.50384" lon="-0.13961">
        <ele>1184.9</ele>
        <time>2017-08-13T09:50:52Z</time>
      </trkpt>
      <trkpt lat="42.50385" lon="-0.13958">
        <ele>1185</ele>
        <time>2017-08-13T09:50:54Z</time>
      </trkpt>
      <trkpt lat="42.50388" lon="-0.13955">
        <ele>1185</ele>
        <time>2017-08-13T09:50:56Z</time>
      </trkpt>
      <trkpt lat="42.5039" lon="-0.13953">
        <ele>1185.4</ele>
        <time>2017-08-13T09:51:02Z</time>
      </trkpt>
      <trkpt lat="42.50393" lon="-0.13953">
        <ele>1185.4</ele>
        <time>2017-08-13T09:51:05Z</time>
      </trkpt>
      <trkpt lat="42.50396" lon="-0.13955">
        <ele>1185.9</ele>
        <time>2017-08-13T09:51:08Z</time>
      </trkpt>
      <trkpt lat="42.50399" lon="-0.13957">
        <ele>1187.1</ele>
        <time>2017-08-13T09:51:12Z</time>
      </trkpt>
      <trkpt lat="42.50402" lon="-0.13959">
        <ele>1187.7</ele>
        <time>2017-08-13T09:51:16Z</time>
      </trkpt>
      <trkpt lat="42.50405" lon="-0.13961">
        <ele>1189</ele>
        <time>2017-08-13T09:51:21Z</time>
      </trkpt>
      <trkpt lat="42.50408" lon="-0.13963">
        <ele>1189.5</ele>
        <time>2017-08-13T09:51:25Z</time>
      </trkpt>
      <trkpt lat="42.50411" lon="-0.13963">
        <ele>1190.1</ele>
        <time>2017-08-13T09:51:29Z</time>
      </trkpt>
      <trkpt lat="42.50414" lon="-0.13964">
        <ele>1190.6</ele>
        <time>2017-08-13T09:51:36Z</time>
      </trkpt>
      <trkpt lat="42.50417" lon="-0.13965">
        <ele>1191.6</ele>
        <time>2017-08-13T09:51:42Z</time>
      </trkpt>
      <trkpt lat="42.5042" lon="-0.13967">
        <ele>1191.9</ele>
        <time>2017-08-13T09:51:48Z</time>
      </trkpt>
      <trkpt lat="42.50422" lon="-0.13969">
        <ele>1192.6</ele>
        <time>2017-08-13T09:51:54Z</time>
      </trkpt>
      <trkpt lat="42.50424" lon="-0.13972">
        <ele>1192.6</ele>
        <time>2017-08-13T09:51:57Z</time>
      </trkpt>
      <trkpt lat="42.50426" lon="-0.13975">
        <ele>1193.1</ele>
        <time>2017-08-13T09:52:00Z</time>
      </trkpt>
      <trkpt lat="42.50428" lon="-0.13977">
        <ele>1193.4</ele>
        <time>2017-08-13T09:52:04Z</time>
      </trkpt>
      <trkpt lat="42.50431" lon="-0.13979">
        <ele>1193.6</ele>
        <time>2017-08-13T09:52:10Z</time>
      </trkpt>
      <trkpt lat="42.50433" lon="-0.13983">
        <ele>1194.2</ele>
        <time>2017-08-13T09:52:15Z</time>
      </trkpt>
      <trkpt lat="42.50436" lon="-0.13984">
        <ele>1194.5</ele>
        <time>2017-08-13T09:52:24Z</time>
      </trkpt>
      <trkpt lat="42.50439" lon="-0.13983">
        <ele>1194.7</ele>
        <time>2017-08-13T09:52:30Z</time>
      </trkpt>
      <trkpt lat="42.50444" lon="-0.13983">
        <ele>1194.9</ele>
        <time>2017-08-13T09:52:32Z</time>
      </trkpt>
      <trkpt lat="42.50448" lon="-0.13982">
        <ele>1195.4</ele>
        <time>2017-08-13T09:52:34Z</time>
      </trkpt>
      <trkpt lat="42.50451" lon="-0.13982">
        <ele>1195.1</ele>
        <time>2017-08-13T09:52:35Z</time>
      </trkpt>
      <trkpt lat="42.50454" lon="-0.13981">
        <ele>1195.3</ele>
        <time>2017-08-13T09:52:36Z</time>
      </trkpt>
      <trkpt lat="42.50459" lon="-0.13981">
        <ele>1195.6</ele>
        <time>2017-08-13T09:52:38Z</time>
      </trkpt>
      <trkpt lat="42.50464" lon="-0.13983">
        <ele>1196.7</ele>
        <time>2017-08-13T09:52:40Z</time>
      </trkpt>
      <trkpt lat="42.50468" lon="-0.13986">
        <ele>1196.8</ele>
        <time>2017-08-13T09:52:42Z</time>
      </trkpt>
      <trkpt lat="42.50472" lon="-0.13989">
        <ele>1197.7</ele>
        <time>2017-08-13T09:52:44Z</time>
      </trkpt>
      <trkpt lat="42.50474" lon="-0.13991">
        <ele>1198.4</ele>
        <time>2017-08-13T09:52:45Z</time>
      </trkpt>
      <trkpt lat="42.50476" lon="-0.13993">
        <ele>1198.4</ele>
        <time>2017-08-13T09:52:46Z</time>
      </trkpt>
      <trkpt lat="42.5048" lon="-0.13998">
        <ele>1198.8</ele>
        <time>2017-08-13T09:52:48Z</time>
      </trkpt>
      <trkpt lat="42.50485" lon="-0.14">
        <ele>1199.1</ele>
        <time>2017-08-13T09:52:50Z</time>
      </trkpt>
      <trkpt lat="42.50487" lon="-0.14001">
        <ele>1199</ele>
        <time>2017-08-13T09:52:51Z</time>
      </trkpt>
      <trkpt lat="42.50491" lon="-0.14003">
        <ele>1198.9</ele>
        <time>2017-08-13T09:52:52Z</time>
      </trkpt>
      <trkpt lat="42.50494" lon="-0.14004">
        <ele>1199.3</ele>
        <time>2017-08-13T09:52:53Z</time>
      </trkpt>
      <trkpt lat="42.50496" lon="-0.14005">
        <ele>1199.1</ele>
        <time>2017-08-13T09:52:54Z</time>
      </trkpt>
      <trkpt lat="42.50499" lon="-0.14007">
        <ele>1198.9</ele>
        <time>2017-08-13T09:52:55Z</time>
      </trkpt>
      <trkpt lat="42.50502" lon="-0.14009">
        <ele>1199.6</ele>
        <time>2017-08-13T09:52:56Z</time>
      </trkpt>
      <trkpt lat="42.50504" lon="-0.14011">
        <ele>1199.3</ele>
        <time>2017-08-13T09:52:57Z</time>
      </trkpt>
      <trkpt lat="42.50507" lon="-0.14012">
        <ele>1200.5</ele>
        <time>2017-08-13T09:52:58Z</time>
      </trkpt>
      <trkpt lat="42.5051" lon="-0.14014">
        <ele>1200.2</ele>
        <time>2017-08-13T09:52:59Z</time>
      </trkpt>
      <trkpt lat="42.50515" lon="-0.14016">
        <ele>1199.4</ele>
        <time>2017-08-13T09:53:01Z</time>
      </trkpt>
      <trkpt lat="42.50519" lon="-0.14019">
        <ele>1200.2</ele>
        <time>2017-08-13T09:53:03Z</time>
      </trkpt>
      <trkpt lat="42.50523" lon="-0.14023">
        <ele>1200.8</ele>
        <time>2017-08-13T09:53:05Z</time>
      </trkpt>
      <trkpt lat="42.50526" lon="-0.14027">
        <ele>1202</ele>
        <time>2017-08-13T09:53:07Z</time>
      </trkpt>
      <trkpt lat="42.50529" lon="-0.14032">
        <ele>1203.1</ele>
        <time>2017-08-13T09:53:09Z</time>
      </trkpt>
      <trkpt lat="42.50531" lon="-0.14035">
        <ele>1204.4</ele>
        <time>2017-08-13T09:53:11Z</time>
      </trkpt>
      <trkpt lat="42.50533" lon="-0.14039">
        <ele>1205.8</ele>
        <time>2017-08-13T09:53:13Z</time>
      </trkpt>
      <trkpt lat="42.50535" lon="-0.14042">
        <ele>1207.6</ele>
        <time>2017-08-13T09:53:15Z</time>
      </trkpt>
      <trkpt lat="42.50537" lon="-0.14045">
        <ele>1207.2</ele>
        <time>2017-08-13T09:53:17Z</time>
      </trkpt>
      <trkpt lat="42.5054" lon="-0.14048">
        <ele>1208.5</ele>
        <time>2017-08-13T09:53:19Z</time>
      </trkpt>
      <trkpt lat="42.50543" lon="-0.1405">
        <ele>1208.1</ele>
        <time>2017-08-13T09:53:21Z</time>
      </trkpt>
      <trkpt lat="42.50546" lon="-0.1405">
        <ele>1207.7</ele>
        <time>2017-08-13T09:53:23Z</time>
      </trkpt>
      <trkpt lat="42.5055" lon="-0.1405">
        <ele>1207.4</ele>
        <time>2017-08-13T09:53:25Z</time>
      </trkpt>
      <trkpt lat="42.50555" lon="-0.1405">
        <ele>1207</ele>
        <time>2017-08-13T09:53:27Z</time>
      </trkpt>
      <trkpt lat="42.50558" lon="-0.14051">
        <ele>1208</ele>
        <time>2017-08-13T09:53:29Z</time>
      </trkpt>
      <trkpt lat="42.50562" lon="-0.14051">
        <ele>1207.8</ele>
        <time>2017-08-13T09:53:31Z</time>
      </trkpt>
      <trkpt lat="42.50566" lon="-0.14052">
        <ele>1207.7</ele>
        <time>2017-08-13T09:53:33Z</time>
      </trkpt>
      <trkpt lat="42.5057" lon="-0.14055">
        <ele>1207.6</ele>
        <time>2017-08-13T09:53:35Z</time>
      </trkpt>
      <trkpt lat="42.50573" lon="-0.14057">
        <ele>1208.4</ele>
        <time>2017-08-13T09:53:37Z</time>
      </trkpt>
      <trkpt lat="42.50577" lon="-0.14059">
        <ele>1208.3</ele>
        <time>2017-08-13T09:53:39Z</time>
      </trkpt>
      <trkpt lat="42.5058" lon="-0.14061">
        <ele>1209.1</ele>
        <time>2017-08-13T09:53:41Z</time>
      </trkpt>
      <trkpt lat="42.50584" lon="-0.14063">
        <ele>1209.1</ele>
        <time>2017-08-13T09:53:43Z</time>
      </trkpt>
      <trkpt lat="42.50587" lon="-0.14066">
        <ele>1210.1</ele>
        <time>2017-08-13T09:53:45Z</time>
      </trkpt>
      <trkpt lat="42.50592" lon="-0.14069">
        <ele>1211.1</ele>
        <time>2017-08-13T09:53:47Z</time>
      </trkpt>
      <trkpt lat="42.50596" lon="-0.1407">
        <ele>1211.1</ele>
        <time>2017-08-13T09:53:49Z</time>
      </trkpt>
      <trkpt lat="42.50601" lon="-0.14073">
        <ele>1212.1</ele>
        <time>2017-08-13T09:54:06Z</time>
      </trkpt>
      <trkpt lat="42.50606" lon="-0.14076">
        <ele>1212</ele>
        <time>2017-08-13T09:54:41Z</time>
      </trkpt>
      <trkpt lat="42.5061" lon="-0.14077">
        <ele>1213</ele>
        <time>2017-08-13T09:54:43Z</time>
      </trkpt>
      <trkpt lat="42.50615" lon="-0.14077">
        <ele>1212.6</ele>
        <time>2017-08-13T09:54:45Z</time>
      </trkpt>
      <trkpt lat="42.5062" lon="-0.14078">
        <ele>1212.3</ele>
        <time>2017-08-13T09:54:47Z</time>
      </trkpt>
      <trkpt lat="42.50623" lon="-0.1408">
        <ele>1211.9</ele>
        <time>2017-08-13T09:54:49Z</time>
      </trkpt>
      <trkpt lat="42.50625" lon="-0.14084">
        <ele>1212.8</ele>
        <time>2017-08-13T09:54:51Z</time>
      </trkpt>
      <trkpt lat="42.50628" lon="-0.14088">
        <ele>1213.8</ele>
        <time>2017-08-13T09:54:53Z</time>
      </trkpt>
      <trkpt lat="42.5063" lon="-0.1409">
        <ele>1215.3</ele>
        <time>2017-08-13T09:54:55Z</time>
      </trkpt>
      <trkpt lat="42.50634" lon="-0.14091">
        <ele>1215.2</ele>
        <time>2017-08-13T09:54:57Z</time>
      </trkpt>
      <trkpt lat="42.50638" lon="-0.1409">
        <ele>1215.3</ele>
        <time>2017-08-13T09:54:59Z</time>
      </trkpt>
      <trkpt lat="42.50642" lon="-0.14089">
        <ele>1215.3</ele>
        <time>2017-08-13T09:55:01Z</time>
      </trkpt>
      <trkpt lat="42.50646" lon="-0.14087">
        <ele>1213.3</ele>
        <time>2017-08-13T09:55:03Z</time>
      </trkpt>
      <trkpt lat="42.5065" lon="-0.14084">
        <ele>1211.2</ele>
        <time>2017-08-13T09:55:05Z</time>
      </trkpt>
      <trkpt lat="42.50655" lon="-0.14081">
        <ele>1211.1</ele>
        <time>2017-08-13T09:55:07Z</time>
      </trkpt>
      <trkpt lat="42.50659" lon="-0.14079">
        <ele>1209.1</ele>
        <time>2017-08-13T09:55:09Z</time>
      </trkpt>
      <trkpt lat="42.50663" lon="-0.14079">
        <ele>1209.3</ele>
        <time>2017-08-13T09:55:11Z</time>
      </trkpt>
      <trkpt lat="42.50667" lon="-0.14078">
        <ele>1209.5</ele>
        <time>2017-08-13T09:55:13Z</time>
      </trkpt>
      <trkpt lat="42.5067" lon="-0.14078">
        <ele>1209.8</ele>
        <time>2017-08-13T09:55:15Z</time>
      </trkpt>
      <trkpt lat="42.50673" lon="-0.1408">
        <ele>1210.2</ele>
        <time>2017-08-13T09:56:07Z</time>
      </trkpt>
      <trkpt lat="42.50676" lon="-0.14079">
        <ele>1210.7</ele>
        <time>2017-08-13T09:56:11Z</time>
      </trkpt>
      <trkpt lat="42.5068" lon="-0.14079">
        <ele>1211.2</ele>
        <time>2017-08-13T09:56:15Z</time>
      </trkpt>
      <trkpt lat="42.50683" lon="-0.14077">
        <ele>1211.6</ele>
        <time>2017-08-13T09:56:18Z</time>
      </trkpt>
      <trkpt lat="42.50687" lon="-0.14077">
        <ele>1212.1</ele>
        <time>2017-08-13T09:56:20Z</time>
      </trkpt>
      <trkpt lat="42.5069" lon="-0.14077">
        <ele>1212.4</ele>
        <time>2017-08-13T09:56:22Z</time>
      </trkpt>
      <trkpt lat="42.50694" lon="-0.14076">
        <ele>1212.7</ele>
        <time>2017-08-13T09:56:24Z</time>
      </trkpt>
      <trkpt lat="42.50699" lon="-0.14078">
        <ele>1212.8</ele>
        <time>2017-08-13T09:56:26Z</time>
      </trkpt>
      <trkpt lat="42.50704" lon="-0.1408">
        <ele>1212.6</ele>
        <time>2017-08-13T09:56:28Z</time>
      </trkpt>
      <trkpt lat="42.50708" lon="-0.1408">
        <ele>1212.6</ele>
        <time>2017-08-13T09:56:30Z</time>
      </trkpt>
      <trkpt lat="42.50711" lon="-0.1408">
        <ele>1212.5</ele>
        <time>2017-08-13T09:56:32Z</time>
      </trkpt>
      <trkpt lat="42.50716" lon="-0.14079">
        <ele>1212.5</ele>
        <time>2017-08-13T09:56:34Z</time>
      </trkpt>
      <trkpt lat="42.5072" lon="-0.1408">
        <ele>1212.6</ele>
        <time>2017-08-13T09:56:36Z</time>
      </trkpt>
      <trkpt lat="42.50724" lon="-0.1408">
        <ele>1212.7</ele>
        <time>2017-08-13T09:56:38Z</time>
      </trkpt>
      <trkpt lat="42.50728" lon="-0.14079">
        <ele>1213</ele>
        <time>2017-08-13T09:56:40Z</time>
      </trkpt>
      <trkpt lat="42.50732" lon="-0.14079">
        <ele>1213.5</ele>
        <time>2017-08-13T09:56:41Z</time>
      </trkpt>
      <trkpt lat="42.50734" lon="-0.14079">
        <ele>1214.2</ele>
        <time>2017-08-13T09:56:42Z</time>
      </trkpt>
      <trkpt lat="42.50739" lon="-0.14078">
        <ele>1216</ele>
        <time>2017-08-13T09:56:44Z</time>
      </trkpt>
      <trkpt lat="42.50744" lon="-0.14079">
        <ele>1217</ele>
        <time>2017-08-13T09:56:46Z</time>
      </trkpt>
      <trkpt lat="42.50749" lon="-0.1408">
        <ele>1219.1</ele>
        <time>2017-08-13T09:56:48Z</time>
      </trkpt>
      <trkpt lat="42.50755" lon="-0.1408">
        <ele>1221.3</ele>
        <time>2017-08-13T09:56:50Z</time>
      </trkpt>
      <trkpt lat="42.50758" lon="-0.1408">
        <ele>1222.5</ele>
        <time>2017-08-13T09:56:51Z</time>
      </trkpt>
      <trkpt lat="42.50762" lon="-0.1408">
        <ele>1223.8</ele>
        <time>2017-08-13T09:56:52Z</time>
      </trkpt>
      <trkpt lat="42.50765" lon="-0.1408">
        <ele>1225.2</ele>
        <time>2017-08-13T09:56:53Z</time>
      </trkpt>
      <trkpt lat="42.50769" lon="-0.14081">
        <ele>1228.8</ele>
        <time>2017-08-13T09:56:55Z</time>
      </trkpt>
      <trkpt lat="42.50773" lon="-0.14084">
        <ele>1230.1</ele>
        <time>2017-08-13T09:56:57Z</time>
      </trkpt>
      <trkpt lat="42.50775" lon="-0.14085">
        <ele>1233.4</ele>
        <time>2017-08-13T09:56:59Z</time>
      </trkpt>
      <trkpt lat="42.50779" lon="-0.14085">
        <ele>1234.7</ele>
        <time>2017-08-13T09:57:01Z</time>
      </trkpt>
      <trkpt lat="42.50783" lon="-0.14084">
        <ele>1235.3</ele>
        <time>2017-08-13T09:57:03Z</time>
      </trkpt>
      <trkpt lat="42.50788" lon="-0.14081">
        <ele>1236.6</ele>
        <time>2017-08-13T09:57:05Z</time>
      </trkpt>
      <trkpt lat="42.50791" lon="-0.14078">
        <ele>1236</ele>
        <time>2017-08-13T09:57:07Z</time>
      </trkpt>
      <trkpt lat="42.50795" lon="-0.14076">
        <ele>1234.8</ele>
        <time>2017-08-13T09:57:09Z</time>
      </trkpt>
      <trkpt lat="42.50799" lon="-0.14074">
        <ele>1237.2</ele>
        <time>2017-08-13T09:57:11Z</time>
      </trkpt>
      <trkpt lat="42.50802" lon="-0.14071">
        <ele>1235.4</ele>
        <time>2017-08-13T09:57:13Z</time>
      </trkpt>
      <trkpt lat="42.50806" lon="-0.14067">
        <ele>1233.4</ele>
        <time>2017-08-13T09:57:15Z</time>
      </trkpt>
      <trkpt lat="42.50809" lon="-0.14064">
        <ele>1234.3</ele>
        <time>2017-08-13T09:57:17Z</time>
      </trkpt>
      <trkpt lat="42.50812" lon="-0.14062">
        <ele>1232.6</ele>
        <time>2017-08-13T09:57:33Z</time>
      </trkpt>
      <trkpt lat="42.50814" lon="-0.14058">
        <ele>1230.1</ele>
        <time>2017-08-13T09:57:43Z</time>
      </trkpt>
      <trkpt lat="42.50816" lon="-0.14054">
        <ele>1228.9</ele>
        <time>2017-08-13T09:57:45Z</time>
      </trkpt>
      <trkpt lat="42.50819" lon="-0.14051">
        <ele>1230</ele>
        <time>2017-08-13T09:57:47Z</time>
      </trkpt>
      <trkpt lat="42.50822" lon="-0.14047">
        <ele>1228.4</ele>
        <time>2017-08-13T09:57:49Z</time>
      </trkpt>
      <trkpt lat="42.50826" lon="-0.14044">
        <ele>1226.5</ele>
        <time>2017-08-13T09:57:51Z</time>
      </trkpt>
      <trkpt lat="42.50831" lon="-0.14041">
        <ele>1225</ele>
        <time>2017-08-13T09:57:53Z</time>
      </trkpt>
      <trkpt lat="42.50835" lon="-0.14039">
        <ele>1225.7</ele>
        <time>2017-08-13T09:57:55Z</time>
      </trkpt>
      <trkpt lat="42.50839" lon="-0.14038">
        <ele>1226.4</ele>
        <time>2017-08-13T09:57:57Z</time>
      </trkpt>
      <trkpt lat="42.50842" lon="-0.14037">
        <ele>1224</ele>
        <time>2017-08-13T09:58:10Z</time>
      </trkpt>
      <trkpt lat="42.50844" lon="-0.14036">
        <ele>1224.6</ele>
        <time>2017-08-13T09:58:18Z</time>
      </trkpt>
      <trkpt lat="42.50848" lon="-0.14035">
        <ele>1225.2</ele>
        <time>2017-08-13T09:58:23Z</time>
      </trkpt>
      <trkpt lat="42.50851" lon="-0.14036">
        <ele>1225.7</ele>
        <time>2017-08-13T09:58:27Z</time>
      </trkpt>
      <trkpt lat="42.50854" lon="-0.14037">
        <ele>1226.1</ele>
        <time>2017-08-13T09:58:30Z</time>
      </trkpt>
      <trkpt lat="42.50857" lon="-0.14036">
        <ele>1226.4</ele>
        <time>2017-08-13T09:58:33Z</time>
      </trkpt>
      <trkpt lat="42.5086" lon="-0.14036">
        <ele>1226.5</ele>
        <time>2017-08-13T09:58:36Z</time>
      </trkpt>
      <trkpt lat="42.50863" lon="-0.14036">
        <ele>1226.5</ele>
        <time>2017-08-13T09:58:41Z</time>
      </trkpt>
      <trkpt lat="42.50865" lon="-0.14036">
        <ele>1226.5</ele>
        <time>2017-08-13T09:58:43Z</time>
      </trkpt>
      <trkpt lat="42.50869" lon="-0.14035">
        <ele>1226.4</ele>
        <time>2017-08-13T09:58:45Z</time>
      </trkpt>
      <trkpt lat="42.50874" lon="-0.14035">
        <ele>1226.2</ele>
        <time>2017-08-13T09:58:47Z</time>
      </trkpt>
      <trkpt lat="42.50878" lon="-0.14034">
        <ele>1225.6</ele>
        <time>2017-08-13T09:58:49Z</time>
      </trkpt>
      <trkpt lat="42.50882" lon="-0.14034">
        <ele>1225.1</ele>
        <time>2017-08-13T09:58:51Z</time>
      </trkpt>
      <trkpt lat="42.50887" lon="-0.14034">
        <ele>1223.9</ele>
        <time>2017-08-13T09:58:53Z</time>
      </trkpt>
      <trkpt lat="42.50891" lon="-0.14034">
        <ele>1223.2</ele>
        <time>2017-08-13T09:58:54Z</time>
      </trkpt>
      <trkpt lat="42.50895" lon="-0.14033">
        <ele>1222.4</ele>
        <time>2017-08-13T09:58:55Z</time>
      </trkpt>
      <trkpt lat="42.50898" lon="-0.14033">
        <ele>1219</ele>
        <time>2017-08-13T09:58:56Z</time>
      </trkpt>
      <trkpt lat="42.50902" lon="-0.14033">
        <ele>1218</ele>
        <time>2017-08-13T09:58:57Z</time>
      </trkpt>
      <trkpt lat="42.50905" lon="-0.14033">
        <ele>1217</ele>
        <time>2017-08-13T09:58:58Z</time>
      </trkpt>
      <trkpt lat="42.5091" lon="-0.14034">
        <ele>1218.4</ele>
        <time>2017-08-13T09:59:00Z</time>
      </trkpt>
      <trkpt lat="42.50913" lon="-0.14034">
        <ele>1218</ele>
        <time>2017-08-13T09:59:01Z</time>
      </trkpt>
      <trkpt lat="42.50916" lon="-0.14036">
        <ele>1217.8</ele>
        <time>2017-08-13T09:59:02Z</time>
      </trkpt>
      <trkpt lat="42.5092" lon="-0.14038">
        <ele>1217.7</ele>
        <time>2017-08-13T09:59:03Z</time>
      </trkpt>
      <trkpt lat="42.50923" lon="-0.14039">
        <ele>1222.3</ele>
        <time>2017-08-13T09:59:04Z</time>
      </trkpt>
      <trkpt lat="42.50926" lon="-0.14041">
        <ele>1222.5</ele>
        <time>2017-08-13T09:59:05Z</time>
      </trkpt>
      <trkpt lat="42.50929" lon="-0.14041">
        <ele>1222.7</ele>
        <time>2017-08-13T09:59:06Z</time>
      </trkpt>
      <trkpt lat="42.50932" lon="-0.14042">
        <ele>1227.8</ele>
        <time>2017-08-13T09:59:07Z</time>
      </trkpt>
      <trkpt lat="42.50935" lon="-0.14043">
        <ele>1227.7</ele>
        <time>2017-08-13T09:59:09Z</time>
      </trkpt>
      <trkpt lat="42.50939" lon="-0.14044">
        <ele>1227.4</ele>
        <time>2017-08-13T09:59:11Z</time>
      </trkpt>
      <trkpt lat="42.50945" lon="-0.14045">
        <ele>1226.2</ele>
        <time>2017-08-13T09:59:13Z</time>
      </trkpt>
      <trkpt lat="42.50948" lon="-0.14046">
        <ele>1225.1</ele>
        <time>2017-08-13T09:59:14Z</time>
      </trkpt>
      <trkpt lat="42.50951" lon="-0.14048">
        <ele>1227.9</ele>
        <time>2017-08-13T09:59:15Z</time>
      </trkpt>
      <trkpt lat="42.50953" lon="-0.1405">
        <ele>1227.9</ele>
        <time>2017-08-13T09:59:16Z</time>
      </trkpt>
      <trkpt lat="42.50958" lon="-0.14054">
        <ele>1227.3</ele>
        <time>2017-08-13T09:59:18Z</time>
      </trkpt>
      <trkpt lat="42.50963" lon="-0.14057">
        <ele>1225.3</ele>
        <time>2017-08-13T09:59:20Z</time>
      </trkpt>
      <trkpt lat="42.50967" lon="-0.14058">
        <ele>1223</ele>
        <time>2017-08-13T09:59:21Z</time>
      </trkpt>
      <trkpt lat="42.5097" lon="-0.14059">
        <ele>1220.8</ele>
        <time>2017-08-13T09:59:22Z</time>
      </trkpt>
      <trkpt lat="42.50973" lon="-0.1406">
        <ele>1221.3</ele>
        <time>2017-08-13T09:59:23Z</time>
      </trkpt>
      <trkpt lat="42.50977" lon="-0.14062">
        <ele>1219.2</ele>
        <time>2017-08-13T09:59:24Z</time>
      </trkpt>
      <trkpt lat="42.50979" lon="-0.14065">
        <ele>1219.9</ele>
        <time>2017-08-13T09:59:25Z</time>
      </trkpt>
      <trkpt lat="42.50983" lon="-0.1407">
        <ele>1220.8</ele>
        <time>2017-08-13T09:59:27Z</time>
      </trkpt>
      <trkpt lat="42.50986" lon="-0.14075">
        <ele>1221.9</ele>
        <time>2017-08-13T09:59:29Z</time>
      </trkpt>
      <trkpt lat="42.50989" lon="-0.14078">
        <ele>1223.2</ele>
        <time>2017-08-13T09:59:32Z</time>
      </trkpt>
      <trkpt lat="42.50994" lon="-0.1408">
        <ele>1221.6</ele>
        <time>2017-08-13T09:59:34Z</time>
      </trkpt>
      <trkpt lat="42.50997" lon="-0.14081">
        <ele>1223.1</ele>
        <time>2017-08-13T09:59:35Z</time>
      </trkpt>
      <trkpt lat="42.51" lon="-0.14082">
        <ele>1221.8</ele>
        <time>2017-08-13T09:59:36Z</time>
      </trkpt>
      <trkpt lat="42.51003" lon="-0.14084">
        <ele>1220.7</ele>
        <time>2017-08-13T09:59:37Z</time>
      </trkpt>
      <trkpt lat="42.51007" lon="-0.14086">
        <ele>1222.4</ele>
        <time>2017-08-13T09:59:38Z</time>
      </trkpt>
      <trkpt lat="42.51009" lon="-0.14089">
        <ele>1221.1</ele>
        <time>2017-08-13T09:59:39Z</time>
      </trkpt>
      <trkpt lat="42.51011" lon="-0.14092">
        <ele>1222.7</ele>
        <time>2017-08-13T09:59:40Z</time>
      </trkpt>
      <trkpt lat="42.51013" lon="-0.14095">
        <ele>1225.8</ele>
        <time>2017-08-13T09:59:41Z</time>
      </trkpt>
      <trkpt lat="42.51016" lon="-0.141">
        <ele>1227.1</ele>
        <time>2017-08-13T09:59:43Z</time>
      </trkpt>
      <trkpt lat="42.51021" lon="-0.14104">
        <ele>1226</ele>
        <time>2017-08-13T09:59:45Z</time>
      </trkpt>
      <trkpt lat="42.51025" lon="-0.14108">
        <ele>1226.5</ele>
        <time>2017-08-13T09:59:46Z</time>
      </trkpt>
      <trkpt lat="42.51028" lon="-0.1411">
        <ele>1224.8</ele>
        <time>2017-08-13T09:59:47Z</time>
      </trkpt>
      <trkpt lat="42.51031" lon="-0.14113">
        <ele>1225.1</ele>
        <time>2017-08-13T09:59:48Z</time>
      </trkpt>
      <trkpt lat="42.51034" lon="-0.14115">
        <ele>1225.3</ele>
        <time>2017-08-13T09:59:49Z</time>
      </trkpt>
      <trkpt lat="42.51037" lon="-0.14117">
        <ele>1223.4</ele>
        <time>2017-08-13T09:59:50Z</time>
      </trkpt>
      <trkpt lat="42.51041" lon="-0.14119">
        <ele>1221.6</ele>
        <time>2017-08-13T09:59:51Z</time>
      </trkpt>
      <trkpt lat="42.51045" lon="-0.14122">
        <ele>1221.3</ele>
        <time>2017-08-13T09:59:52Z</time>
      </trkpt>
      <trkpt lat="42.51049" lon="-0.14125">
        <ele>1219.3</ele>
        <time>2017-08-13T09:59:53Z</time>
      </trkpt>
      <trkpt lat="42.51052" lon="-0.14127">
        <ele>1217.7</ele>
        <time>2017-08-13T09:59:54Z</time>
      </trkpt>
      <trkpt lat="42.51054" lon="-0.14129">
        <ele>1219.2</ele>
        <time>2017-08-13T09:59:55Z</time>
      </trkpt>
      <trkpt lat="42.51057" lon="-0.14134">
        <ele>1219.3</ele>
        <time>2017-08-13T09:59:57Z</time>
      </trkpt>
      <trkpt lat="42.51059" lon="-0.14137">
        <ele>1219.4</ele>
        <time>2017-08-13T09:59:58Z</time>
      </trkpt>
      <trkpt lat="42.51061" lon="-0.14143">
        <ele>1219.9</ele>
        <time>2017-08-13T10:00:00Z</time>
      </trkpt>
      <trkpt lat="42.51064" lon="-0.14146">
        <ele>1221.6</ele>
        <time>2017-08-13T10:00:02Z</time>
      </trkpt>
      <trkpt lat="42.51066" lon="-0.14149">
        <ele>1222.9</ele>
        <time>2017-08-13T10:00:04Z</time>
      </trkpt>
      <trkpt lat="42.51069" lon="-0.14153">
        <ele>1222.2</ele>
        <time>2017-08-13T10:00:07Z</time>
      </trkpt>
      <trkpt lat="42.51073" lon="-0.14158">
        <ele>1224</ele>
        <time>2017-08-13T10:00:10Z</time>
      </trkpt>
      <trkpt lat="42.51075" lon="-0.14161">
        <ele>1226</ele>
        <time>2017-08-13T10:00:12Z</time>
      </trkpt>
      <trkpt lat="42.51076" lon="-0.14165">
        <ele>1228.8</ele>
        <time>2017-08-13T10:00:19Z</time>
      </trkpt>
      <trkpt lat="42.51079" lon="-0.14166">
        <ele>1228.1</ele>
        <time>2017-08-13T10:00:24Z</time>
      </trkpt>
      <trkpt lat="42.51082" lon="-0.14167">
        <ele>1230.4</ele>
        <time>2017-08-13T10:00:26Z</time>
      </trkpt>
      <trkpt lat="42.51085" lon="-0.14168">
        <ele>1229.9</ele>
        <time>2017-08-13T10:00:28Z</time>
      </trkpt>
      <trkpt lat="42.51088" lon="-0.14169">
        <ele>1229.7</ele>
        <time>2017-08-13T10:00:33Z</time>
      </trkpt>
      <trkpt lat="42.51091" lon="-0.14168">
        <ele>1229.6</ele>
        <time>2017-08-13T10:00:42Z</time>
      </trkpt>
      <trkpt lat="42.51094" lon="-0.14168">
        <ele>1229.7</ele>
        <time>2017-08-13T10:00:49Z</time>
      </trkpt>
      <trkpt lat="42.51096" lon="-0.14171">
        <ele>1229.9</ele>
        <time>2017-08-13T10:00:53Z</time>
      </trkpt>
      <trkpt lat="42.51099" lon="-0.14175">
        <ele>1232.1</ele>
        <time>2017-08-13T10:00:58Z</time>
      </trkpt>
      <trkpt lat="42.51104" lon="-0.14178">
        <ele>1234.5</ele>
        <time>2017-08-13T10:01:00Z</time>
      </trkpt>
      <trkpt lat="42.51109" lon="-0.14179">
        <ele>1235.3</ele>
        <time>2017-08-13T10:01:02Z</time>
      </trkpt>
      <trkpt lat="42.51112" lon="-0.14179">
        <ele>1235.9</ele>
        <time>2017-08-13T10:01:03Z</time>
      </trkpt>
      <trkpt lat="42.51117" lon="-0.1418">
        <ele>1238.1</ele>
        <time>2017-08-13T10:01:05Z</time>
      </trkpt>
      <trkpt lat="42.51119" lon="-0.14183">
        <ele>1238.7</ele>
        <time>2017-08-13T10:01:09Z</time>
      </trkpt>
      <trkpt lat="42.51121" lon="-0.14186">
        <ele>1241</ele>
        <time>2017-08-13T10:01:15Z</time>
      </trkpt>
      <trkpt lat="42.51124" lon="-0.14185">
        <ele>1241.8</ele>
        <time>2017-08-13T10:01:19Z</time>
      </trkpt>
      <trkpt lat="42.51127" lon="-0.14185">
        <ele>1241.8</ele>
        <time>2017-08-13T10:01:27Z</time>
      </trkpt>
      <trkpt lat="42.5113" lon="-0.14182">
        <ele>1241.1</ele>
        <time>2017-08-13T10:01:30Z</time>
      </trkpt>
      <trkpt lat="42.51133" lon="-0.14179">
        <ele>1240.3</ele>
        <time>2017-08-13T10:01:32Z</time>
      </trkpt>
      <trkpt lat="42.51136" lon="-0.14175">
        <ele>1239.4</ele>
        <time>2017-08-13T10:01:34Z</time>
      </trkpt>
      <trkpt lat="42.51139" lon="-0.14171">
        <ele>1240.1</ele>
        <time>2017-08-13T10:01:36Z</time>
      </trkpt>
      <trkpt lat="42.51142" lon="-0.14169">
        <ele>1239.2</ele>
        <time>2017-08-13T10:01:38Z</time>
      </trkpt>
      <trkpt lat="42.51145" lon="-0.14165">
        <ele>1238.3</ele>
        <time>2017-08-13T10:01:40Z</time>
      </trkpt>
      <trkpt lat="42.51149" lon="-0.1416">
        <ele>1237</ele>
        <time>2017-08-13T10:01:42Z</time>
      </trkpt>
      <trkpt lat="42.51153" lon="-0.14156">
        <ele>1236.5</ele>
        <time>2017-08-13T10:01:44Z</time>
      </trkpt>
      <trkpt lat="42.51157" lon="-0.14153">
        <ele>1235</ele>
        <time>2017-08-13T10:01:46Z</time>
      </trkpt>
      <trkpt lat="42.51161" lon="-0.14147">
        <ele>1233.5</ele>
        <time>2017-08-13T10:01:48Z</time>
      </trkpt>
      <trkpt lat="42.51163" lon="-0.14143">
        <ele>1232.1</ele>
        <time>2017-08-13T10:01:49Z</time>
      </trkpt>
      <trkpt lat="42.51165" lon="-0.14138">
        <ele>1229.8</ele>
        <time>2017-08-13T10:01:50Z</time>
      </trkpt>
      <trkpt lat="42.51168" lon="-0.14134">
        <ele>1228.5</ele>
        <time>2017-08-13T10:01:51Z</time>
      </trkpt>
      <trkpt lat="42.51171" lon="-0.1413">
        <ele>1226.8</ele>
        <time>2017-08-13T10:01:52Z</time>
      </trkpt>
      <trkpt lat="42.51174" lon="-0.14126">
        <ele>1225.1</ele>
        <time>2017-08-13T10:01:53Z</time>
      </trkpt>
      <trkpt lat="42.51177" lon="-0.14121">
        <ele>1223.4</ele>
        <time>2017-08-13T10:01:54Z</time>
      </trkpt>
      <trkpt lat="42.5118" lon="-0.14117">
        <ele>1222</ele>
        <time>2017-08-13T10:01:55Z</time>
      </trkpt>
      <trkpt lat="42.51184" lon="-0.14114">
        <ele>1220.9</ele>
        <time>2017-08-13T10:01:56Z</time>
      </trkpt>
      <trkpt lat="42.51187" lon="-0.14111">
        <ele>1222</ele>
        <time>2017-08-13T10:01:57Z</time>
      </trkpt>
      <trkpt lat="42.51191" lon="-0.14109">
        <ele>1222.1</ele>
        <time>2017-08-13T10:01:58Z</time>
      </trkpt>
      <trkpt lat="42.51194" lon="-0.14108">
        <ele>1223</ele>
        <time>2017-08-13T10:01:59Z</time>
      </trkpt>
      <trkpt lat="42.51199" lon="-0.14108">
        <ele>1223.8</ele>
        <time>2017-08-13T10:02:01Z</time>
      </trkpt>
      <trkpt lat="42.51203" lon="-0.14109">
        <ele>1224.7</ele>
        <time>2017-08-13T10:02:03Z</time>
      </trkpt>
      <trkpt lat="42.51207" lon="-0.14109">
        <ele>1226.3</ele>
        <time>2017-08-13T10:02:05Z</time>
      </trkpt>
      <trkpt lat="42.51211" lon="-0.14108">
        <ele>1227</ele>
        <time>2017-08-13T10:02:07Z</time>
      </trkpt>
      <trkpt lat="42.51213" lon="-0.14108">
        <ele>1227.6</ele>
        <time>2017-08-13T10:02:14Z</time>
      </trkpt>
      <trkpt lat="42.51216" lon="-0.14109">
        <ele>1228.1</ele>
        <time>2017-08-13T10:02:18Z</time>
      </trkpt>
      <trkpt lat="42.51219" lon="-0.1411">
        <ele>1228.5</ele>
        <time>2017-08-13T10:02:22Z</time>
      </trkpt>
      <trkpt lat="42.51223" lon="-0.14111">
        <ele>1231</ele>
        <time>2017-08-13T10:02:29Z</time>
      </trkpt>
      <trkpt lat="42.51226" lon="-0.14112">
        <ele>1231.4</ele>
        <time>2017-08-13T10:02:31Z</time>
      </trkpt>
      <trkpt lat="42.5123" lon="-0.14113">
        <ele>1231.8</ele>
        <time>2017-08-13T10:02:33Z</time>
      </trkpt>
      <trkpt lat="42.51233" lon="-0.14115">
        <ele>1232.2</ele>
        <time>2017-08-13T10:02:35Z</time>
      </trkpt>
      <trkpt lat="42.51236" lon="-0.14117">
        <ele>1235.6</ele>
        <time>2017-08-13T10:02:37Z</time>
      </trkpt>
      <trkpt lat="42.51239" lon="-0.14119">
        <ele>1239.8</ele>
        <time>2017-08-13T10:02:40Z</time>
      </trkpt>
      <trkpt lat="42.51243" lon="-0.14122">
        <ele>1240.2</ele>
        <time>2017-08-13T10:02:43Z</time>
      </trkpt>
      <trkpt lat="42.51245" lon="-0.14125">
        <ele>1244.7</ele>
        <time>2017-08-13T10:02:45Z</time>
      </trkpt>
      <trkpt lat="42.51248" lon="-0.14127">
        <ele>1244.6</ele>
        <time>2017-08-13T10:02:47Z</time>
      </trkpt>
      <trkpt lat="42.51251" lon="-0.14129">
        <ele>1248.8</ele>
        <time>2017-08-13T10:02:49Z</time>
      </trkpt>
      <trkpt lat="42.51253" lon="-0.14131">
        <ele>1248.2</ele>
        <time>2017-08-13T10:02:51Z</time>
      </trkpt>
      <trkpt lat="42.51256" lon="-0.14133">
        <ele>1250.7</ele>
        <time>2017-08-13T10:02:53Z</time>
      </trkpt>
      <trkpt lat="42.51259" lon="-0.14135">
        <ele>1249.4</ele>
        <time>2017-08-13T10:02:55Z</time>
      </trkpt>
      <trkpt lat="42.51263" lon="-0.14137">
        <ele>1250.2</ele>
        <time>2017-08-13T10:02:57Z</time>
      </trkpt>
      <trkpt lat="42.51265" lon="-0.14139">
        <ele>1248.2</ele>
        <time>2017-08-13T10:03:00Z</time>
      </trkpt>
      <trkpt lat="42.51268" lon="-0.14141">
        <ele>1248.5</ele>
        <time>2017-08-13T10:03:05Z</time>
      </trkpt>
      <trkpt lat="42.5127" lon="-0.14143">
        <ele>1246.6</ele>
        <time>2017-08-13T10:03:09Z</time>
      </trkpt>
      <trkpt lat="42.51273" lon="-0.14144">
        <ele>1244.9</ele>
        <time>2017-08-13T10:03:16Z</time>
      </trkpt>
      <trkpt lat="42.51276" lon="-0.14146">
        <ele>1247.7</ele>
        <time>2017-08-13T10:03:18Z</time>
      </trkpt>
      <trkpt lat="42.51278" lon="-0.14149">
        <ele>1246.3</ele>
        <time>2017-08-13T10:03:20Z</time>
      </trkpt>
      <trkpt lat="42.51281" lon="-0.14152">
        <ele>1248.6</ele>
        <time>2017-08-13T10:03:23Z</time>
      </trkpt>
      <trkpt lat="42.51284" lon="-0.14153">
        <ele>1247.9</ele>
        <time>2017-08-13T10:03:25Z</time>
      </trkpt>
      <trkpt lat="42.51287" lon="-0.14151">
        <ele>1247.4</ele>
        <time>2017-08-13T10:03:27Z</time>
      </trkpt>
      <trkpt lat="42.51291" lon="-0.14151">
        <ele>1247.2</ele>
        <time>2017-08-13T10:03:29Z</time>
      </trkpt>
      <trkpt lat="42.51296" lon="-0.1415">
        <ele>1247.3</ele>
        <time>2017-08-13T10:03:31Z</time>
      </trkpt>
      <trkpt lat="42.51299" lon="-0.14149">
        <ele>1244.6</ele>
        <time>2017-08-13T10:03:32Z</time>
      </trkpt>
      <trkpt lat="42.51304" lon="-0.14146">
        <ele>1245</ele>
        <time>2017-08-13T10:03:34Z</time>
      </trkpt>
      <trkpt lat="42.51308" lon="-0.14145">
        <ele>1245.7</ele>
        <time>2017-08-13T10:03:36Z</time>
      </trkpt>
      <trkpt lat="42.51312" lon="-0.14144">
        <ele>1243.5</ele>
        <time>2017-08-13T10:03:38Z</time>
      </trkpt>
      <trkpt lat="42.51316" lon="-0.14142">
        <ele>1244</ele>
        <time>2017-08-13T10:03:40Z</time>
      </trkpt>
      <trkpt lat="42.51319" lon="-0.14141">
        <ele>1242.2</ele>
        <time>2017-08-13T10:03:42Z</time>
      </trkpt>
      <trkpt lat="42.51323" lon="-0.14137">
        <ele>1243</ele>
        <time>2017-08-13T10:03:44Z</time>
      </trkpt>
      <trkpt lat="42.51326" lon="-0.14135">
        <ele>1241.6</ele>
        <time>2017-08-13T10:03:45Z</time>
      </trkpt>
      <trkpt lat="42.51331" lon="-0.14133">
        <ele>1244</ele>
        <time>2017-08-13T10:03:47Z</time>
      </trkpt>
      <trkpt lat="42.51334" lon="-0.14132">
        <ele>1243.1</ele>
        <time>2017-08-13T10:03:49Z</time>
      </trkpt>
      <trkpt lat="42.51337" lon="-0.14128">
        <ele>1244.4</ele>
        <time>2017-08-13T10:03:51Z</time>
      </trkpt>
      <trkpt lat="42.5134" lon="-0.14123">
        <ele>1241</ele>
        <time>2017-08-13T10:03:53Z</time>
      </trkpt>
      <trkpt lat="42.51344" lon="-0.14118">
        <ele>1240</ele>
        <time>2017-08-13T10:03:55Z</time>
      </trkpt>
      <trkpt lat="42.51347" lon="-0.14116">
        <ele>1241.2</ele>
        <time>2017-08-13T10:03:57Z</time>
      </trkpt>
      <trkpt lat="42.51351" lon="-0.14114">
        <ele>1240</ele>
        <time>2017-08-13T10:03:59Z</time>
      </trkpt>
      <trkpt lat="42.51356" lon="-0.14111">
        <ele>1241.7</ele>
        <time>2017-08-13T10:04:01Z</time>
      </trkpt>
      <trkpt lat="42.51359" lon="-0.14109">
        <ele>1240.4</ele>
        <time>2017-08-13T10:04:02Z</time>
      </trkpt>
      <trkpt lat="42.51362" lon="-0.14107">
        <ele>1241.1</ele>
        <time>2017-08-13T10:04:03Z</time>
      </trkpt>
      <trkpt lat="42.51365" lon="-0.14106">
        <ele>1239.7</ele>
        <time>2017-08-13T10:04:04Z</time>
      </trkpt>
      <trkpt lat="42.51367" lon="-0.14105">
        <ele>1239.7</ele>
        <time>2017-08-13T10:04:05Z</time>
      </trkpt>
      <trkpt lat="42.5137" lon="-0.14104">
        <ele>1240.6</ele>
        <time>2017-08-13T10:04:06Z</time>
      </trkpt>
      <trkpt lat="42.51373" lon="-0.14102">
        <ele>1241.6</ele>
        <time>2017-08-13T10:04:07Z</time>
      </trkpt>
      <trkpt lat="42.51376" lon="-0.14101">
        <ele>1240.6</ele>
        <time>2017-08-13T10:04:08Z</time>
      </trkpt>
      <trkpt lat="42.5138" lon="-0.14101">
        <ele>1242.8</ele>
        <time>2017-08-13T10:04:10Z</time>
      </trkpt>
      <trkpt lat="42.51383" lon="-0.141">
        <ele>1242.8</ele>
        <time>2017-08-13T10:04:12Z</time>
      </trkpt>
      <trkpt lat="42.51387" lon="-0.14098">
        <ele>1243.8</ele>
        <time>2017-08-13T10:04:15Z</time>
      </trkpt>
      <trkpt lat="42.51389" lon="-0.14096">
        <ele>1243.2</ele>
        <time>2017-08-13T10:04:17Z</time>
      </trkpt>
      <trkpt lat="42.51392" lon="-0.14095">
        <ele>1244.2</ele>
        <time>2017-08-13T10:04:19Z</time>
      </trkpt>
      <trkpt lat="42.51395" lon="-0.14093">
        <ele>1243.8</ele>
        <time>2017-08-13T10:04:21Z</time>
      </trkpt>
      <trkpt lat="42.51398" lon="-0.1409">
        <ele>1244.8</ele>
        <time>2017-08-13T10:04:23Z</time>
      </trkpt>
      <trkpt lat="42.514" lon="-0.14088">
        <ele>1244.6</ele>
        <time>2017-08-13T10:04:25Z</time>
      </trkpt>
      <trkpt lat="42.51402" lon="-0.14085">
        <ele>1243.8</ele>
        <time>2017-08-13T10:04:27Z</time>
      </trkpt>
      <trkpt lat="42.51405" lon="-0.14083">
        <ele>1244.6</ele>
        <time>2017-08-13T10:04:29Z</time>
      </trkpt>
      <trkpt lat="42.51408" lon="-0.1408">
        <ele>1244.8</ele>
        <time>2017-08-13T10:04:31Z</time>
      </trkpt>
      <trkpt lat="42.51411" lon="-0.14076">
        <ele>1244.9</ele>
        <time>2017-08-13T10:04:33Z</time>
      </trkpt>
      <trkpt lat="42.51413" lon="-0.14072">
        <ele>1245.1</ele>
        <time>2017-08-13T10:04:35Z</time>
      </trkpt>
      <trkpt lat="42.51416" lon="-0.14069">
        <ele>1245.6</ele>
        <time>2017-08-13T10:04:37Z</time>
      </trkpt>
      <trkpt lat="42.51418" lon="-0.14066">
        <ele>1245.2</ele>
        <time>2017-08-13T10:04:43Z</time>
      </trkpt>
      <trkpt lat="42.5142" lon="-0.14064">
        <ele>1245.5</ele>
        <time>2017-08-13T10:04:49Z</time>
      </trkpt>
      <trkpt lat="42.51423" lon="-0.14062">
        <ele>1245.2</ele>
        <time>2017-08-13T10:05:41Z</time>
      </trkpt>
      <trkpt lat="42.51427" lon="-0.14063">
        <ele>1245.1</ele>
        <time>2017-08-13T10:05:43Z</time>
      </trkpt>
      <trkpt lat="42.51431" lon="-0.14065">
        <ele>1245.1</ele>
        <time>2017-08-13T10:05:45Z</time>
      </trkpt>
      <trkpt lat="42.51436" lon="-0.14066">
        <ele>1244.5</ele>
        <time>2017-08-13T10:05:47Z</time>
      </trkpt>
      <trkpt lat="42.51438" lon="-0.14068">
        <ele>1244.9</ele>
        <time>2017-08-13T10:05:49Z</time>
      </trkpt>
      <trkpt lat="42.51441" lon="-0.1407">
        <ele>1244.2</ele>
        <time>2017-08-13T10:06:02Z</time>
      </trkpt>
      <trkpt lat="42.51443" lon="-0.14073">
        <ele>1245.3</ele>
        <time>2017-08-13T10:06:08Z</time>
      </trkpt>
      <trkpt lat="42.51446" lon="-0.14074">
        <ele>1244.7</ele>
        <time>2017-08-13T10:06:15Z</time>
      </trkpt>
      <trkpt lat="42.51449" lon="-0.14076">
        <ele>1244</ele>
        <time>2017-08-13T10:06:19Z</time>
      </trkpt>
      <trkpt lat="42.51452" lon="-0.14077">
        <ele>1244.5</ele>
        <time>2017-08-13T10:06:21Z</time>
      </trkpt>
      <trkpt lat="42.51454" lon="-0.14079">
        <ele>1243.7</ele>
        <time>2017-08-13T10:06:23Z</time>
      </trkpt>
      <trkpt lat="42.51457" lon="-0.1408">
        <ele>1242.8</ele>
        <time>2017-08-13T10:06:24Z</time>
      </trkpt>
      <trkpt lat="42.5146" lon="-0.1408">
        <ele>1241.9</ele>
        <time>2017-08-13T10:06:25Z</time>
      </trkpt>
      <trkpt lat="42.51463" lon="-0.14081">
        <ele>1242.1</ele>
        <time>2017-08-13T10:06:26Z</time>
      </trkpt>
      <trkpt lat="42.51466" lon="-0.14082">
        <ele>1242.1</ele>
        <time>2017-08-13T10:06:27Z</time>
      </trkpt>
      <trkpt lat="42.5147" lon="-0.14084">
        <ele>1240.3</ele>
        <time>2017-08-13T10:06:29Z</time>
      </trkpt>
      <trkpt lat="42.51473" lon="-0.14086">
        <ele>1240.5</ele>
        <time>2017-08-13T10:06:31Z</time>
      </trkpt>
      <trkpt lat="42.51478" lon="-0.14088">
        <ele>1239.6</ele>
        <time>2017-08-13T10:06:33Z</time>
      </trkpt>
      <trkpt lat="42.51482" lon="-0.14089">
        <ele>1237.7</ele>
        <time>2017-08-13T10:06:34Z</time>
      </trkpt>
      <trkpt lat="42.51487" lon="-0.1409">
        <ele>1237.7</ele>
        <time>2017-08-13T10:06:35Z</time>
      </trkpt>
      <trkpt lat="42.51491" lon="-0.14092">
        <ele>1235.7</ele>
        <time>2017-08-13T10:06:36Z</time>
      </trkpt>
      <trkpt lat="42.51497" lon="-0.14094">
        <ele>1235.7</ele>
        <time>2017-08-13T10:06:37Z</time>
      </trkpt>
      <trkpt lat="42.51502" lon="-0.14096">
        <ele>1234.2</ele>
        <time>2017-08-13T10:06:38Z</time>
      </trkpt>
      <trkpt lat="42.51507" lon="-0.14097">
        <ele>1232.7</ele>
        <time>2017-08-13T10:06:39Z</time>
      </trkpt>
      <trkpt lat="42.51511" lon="-0.14099">
        <ele>1232.5</ele>
        <time>2017-08-13T10:06:40Z</time>
      </trkpt>
      <trkpt lat="42.51514" lon="-0.141">
        <ele>1231.7</ele>
        <time>2017-08-13T10:06:41Z</time>
      </trkpt>
      <trkpt lat="42.51518" lon="-0.14102">
        <ele>1231.1</ele>
        <time>2017-08-13T10:06:43Z</time>
      </trkpt>
      <trkpt lat="42.51521" lon="-0.14101">
        <ele>1230.5</ele>
        <time>2017-08-13T10:06:45Z</time>
      </trkpt>
      <trkpt lat="42.51523" lon="-0.14099">
        <ele>1230</ele>
        <time>2017-08-13T10:06:47Z</time>
      </trkpt>
      <trkpt lat="42.51525" lon="-0.14095">
        <ele>1229.4</ele>
        <time>2017-08-13T10:06:50Z</time>
      </trkpt>
      <trkpt lat="42.5153" lon="-0.14094">
        <ele>1228.5</ele>
        <time>2017-08-13T10:06:53Z</time>
      </trkpt>
      <trkpt lat="42.51533" lon="-0.14094">
        <ele>1227.9</ele>
        <time>2017-08-13T10:06:54Z</time>
      </trkpt>
      <trkpt lat="42.51536" lon="-0.14096">
        <ele>1227.3</ele>
        <time>2017-08-13T10:06:55Z</time>
      </trkpt>
      <trkpt lat="42.5154" lon="-0.14099">
        <ele>1227.3</ele>
        <time>2017-08-13T10:06:57Z</time>
      </trkpt>
      <trkpt lat="42.51545" lon="-0.14102">
        <ele>1225.8</ele>
        <time>2017-08-13T10:06:59Z</time>
      </trkpt>
      <trkpt lat="42.51549" lon="-0.14103">
        <ele>1226.2</ele>
        <time>2017-08-13T10:07:00Z</time>
      </trkpt>
      <trkpt lat="42.51553" lon="-0.14105">
        <ele>1225.5</ele>
        <time>2017-08-13T10:07:01Z</time>
      </trkpt>
      <trkpt lat="42.51557" lon="-0.14106">
        <ele>1224.8</ele>
        <time>2017-08-13T10:07:02Z</time>
      </trkpt>
      <trkpt lat="42.5156" lon="-0.14107">
        <ele>1225.4</ele>
        <time>2017-08-13T10:07:03Z</time>
      </trkpt>
      <trkpt lat="42.51563" lon="-0.14109">
        <ele>1224.5</ele>
        <time>2017-08-13T10:07:04Z</time>
      </trkpt>
      <trkpt lat="42.51568" lon="-0.1411">
        <ele>1222.5</ele>
        <time>2017-08-13T10:07:06Z</time>
      </trkpt>
      <trkpt lat="42.51571" lon="-0.14111">
        <ele>1223.1</ele>
        <time>2017-08-13T10:07:07Z</time>
      </trkpt>
      <trkpt lat="42.51574" lon="-0.14113">
        <ele>1222.1</ele>
        <time>2017-08-13T10:07:09Z</time>
      </trkpt>
      <trkpt lat="42.51578" lon="-0.14114">
        <ele>1221.1</ele>
        <time>2017-08-13T10:07:11Z</time>
      </trkpt>
      <trkpt lat="42.51582" lon="-0.14114">
        <ele>1220.3</ele>
        <time>2017-08-13T10:07:12Z</time>
      </trkpt>
      <trkpt lat="42.51585" lon="-0.14114">
        <ele>1219.5</ele>
        <time>2017-08-13T10:07:13Z</time>
      </trkpt>
      <trkpt lat="42.51589" lon="-0.14113">
        <ele>1218.8</ele>
        <time>2017-08-13T10:07:14Z</time>
      </trkpt>
      <trkpt lat="42.51592" lon="-0.14113">
        <ele>1218.1</ele>
        <time>2017-08-13T10:07:15Z</time>
      </trkpt>
      <trkpt lat="42.51595" lon="-0.14113">
        <ele>1217.4</ele>
        <time>2017-08-13T10:07:17Z</time>
      </trkpt>
      <trkpt lat="42.51599" lon="-0.14115">
        <ele>1216.2</ele>
        <time>2017-08-13T10:07:20Z</time>
      </trkpt>
      <trkpt lat="42.51602" lon="-0.14117">
        <ele>1218.8</ele>
        <time>2017-08-13T10:07:22Z</time>
      </trkpt>
      <trkpt lat="42.51604" lon="-0.14113">
        <ele>1215.8</ele>
        <time>2017-08-13T10:07:25Z</time>
      </trkpt>
      <trkpt lat="42.51603" lon="-0.14109">
        <ele>1213.4</ele>
        <time>2017-08-13T10:07:27Z</time>
      </trkpt>
      <trkpt lat="42.51599" lon="-0.14105">
        <ele>1211.5</ele>
        <time>2017-08-13T10:07:29Z</time>
      </trkpt>
      <trkpt lat="42.51596" lon="-0.14103">
        <ele>1212.1</ele>
        <time>2017-08-13T10:07:30Z</time>
      </trkpt>
      <trkpt lat="42.51592" lon="-0.14099">
        <ele>1211.4</ele>
        <time>2017-08-13T10:07:32Z</time>
      </trkpt>
      <trkpt lat="42.51589" lon="-0.14097">
        <ele>1210.1</ele>
        <time>2017-08-13T10:07:34Z</time>
      </trkpt>
      <trkpt lat="42.51586" lon="-0.14095">
        <ele>1211.1</ele>
        <time>2017-08-13T10:07:36Z</time>
      </trkpt>
      <trkpt lat="42.51584" lon="-0.14093">
        <ele>1209.3</ele>
        <time>2017-08-13T10:07:38Z</time>
      </trkpt>
      <trkpt lat="42.51581" lon="-0.14089">
        <ele>1208.8</ele>
        <time>2017-08-13T10:07:41Z</time>
      </trkpt>
      <trkpt lat="42.51577" lon="-0.14086">
        <ele>1210</ele>
        <time>2017-08-13T10:07:43Z</time>
      </trkpt>
      <trkpt lat="42.51575" lon="-0.14084">
        <ele>1210.2</ele>
        <time>2017-08-13T10:07:44Z</time>
      </trkpt>
      <trkpt lat="42.51572" lon="-0.14082">
        <ele>1211.6</ele>
        <time>2017-08-13T10:07:45Z</time>
      </trkpt>
      <trkpt lat="42.51569" lon="-0.14079">
        <ele>1212</ele>
        <time>2017-08-13T10:07:46Z</time>
      </trkpt>
      <trkpt lat="42.51567" lon="-0.14076">
        <ele>1212.3</ele>
        <time>2017-08-13T10:07:47Z</time>
      </trkpt>
      <trkpt lat="42.51565" lon="-0.14073">
        <ele>1212.3</ele>
        <time>2017-08-13T10:07:48Z</time>
      </trkpt>
      <trkpt lat="42.51564" lon="-0.14069">
        <ele>1212.5</ele>
        <time>2017-08-13T10:07:49Z</time>
      </trkpt>
      <trkpt lat="42.51562" lon="-0.14066">
        <ele>1211.1</ele>
        <time>2017-08-13T10:07:50Z</time>
      </trkpt>
      <trkpt lat="42.51561" lon="-0.14063">
        <ele>1211.5</ele>
        <time>2017-08-13T10:07:51Z</time>
      </trkpt>
      <trkpt lat="42.51559" lon="-0.14059">
        <ele>1210.4</ele>
        <time>2017-08-13T10:07:53Z</time>
      </trkpt>
      <trkpt lat="42.51557" lon="-0.14056">
        <ele>1212.1</ele>
        <time>2017-08-13T10:07:56Z</time>
      </trkpt>
      <trkpt lat="42.51554" lon="-0.14053">
        <ele>1212.8</ele>
        <time>2017-08-13T10:07:58Z</time>
      </trkpt>
      <trkpt lat="42.51551" lon="-0.14047">
        <ele>1213.4</ele>
        <time>2017-08-13T10:08:00Z</time>
      </trkpt>
      <trkpt lat="42.51549" lon="-0.14044">
        <ele>1212</ele>
        <time>2017-08-13T10:08:01Z</time>
      </trkpt>
      <trkpt lat="42.51547" lon="-0.1404">
        <ele>1212.1</ele>
        <time>2017-08-13T10:08:02Z</time>
      </trkpt>
      <trkpt lat="42.51546" lon="-0.14037">
        <ele>1210.3</ele>
        <time>2017-08-13T10:08:03Z</time>
      </trkpt>
      <trkpt lat="42.51545" lon="-0.1403">
        <ele>1208.4</ele>
        <time>2017-08-13T10:08:05Z</time>
      </trkpt>
      <trkpt lat="42.51545" lon="-0.14026">
        <ele>1208.1</ele>
        <time>2017-08-13T10:08:06Z</time>
      </trkpt>
      <trkpt lat="42.51544" lon="-0.14019">
        <ele>1203.5</ele>
        <time>2017-08-13T10:08:08Z</time>
      </trkpt>
      <trkpt lat="42.51542" lon="-0.14013">
        <ele>1201.9</ele>
        <time>2017-08-13T10:08:10Z</time>
      </trkpt>
      <trkpt lat="42.51542" lon="-0.14006">
        <ele>1194.6</ele>
        <time>2017-08-13T10:08:12Z</time>
      </trkpt>
      <trkpt lat="42.51543" lon="-0.14002">
        <ele>1191.6</ele>
        <time>2017-08-13T10:08:13Z</time>
      </trkpt>
      <trkpt lat="42.51544" lon="-0.13999">
        <ele>1188.8</ele>
        <time>2017-08-13T10:08:14Z</time>
      </trkpt>
      <trkpt lat="42.51545" lon="-0.13995">
        <ele>1188.8</ele>
        <time>2017-08-13T10:08:21Z</time>
      </trkpt>
      <trkpt lat="42.51543" lon="-0.13992">
        <ele>1185.8</ele>
        <time>2017-08-13T10:08:28Z</time>
      </trkpt>
      <trkpt lat="42.51542" lon="-0.13988">
        <ele>1184.4</ele>
        <time>2017-08-13T10:08:32Z</time>
      </trkpt>
      <trkpt lat="42.5154" lon="-0.13985">
        <ele>1181.4</ele>
        <time>2017-08-13T10:08:40Z</time>
      </trkpt>
      <trkpt lat="42.51538" lon="-0.13982">
        <ele>1183.3</ele>
        <time>2017-08-13T10:08:47Z</time>
      </trkpt>
      <trkpt lat="42.51537" lon="-0.13978">
        <ele>1180.6</ele>
        <time>2017-08-13T10:08:52Z</time>
      </trkpt>
      <trkpt lat="42.51537" lon="-0.13973">
        <ele>1175.9</ele>
        <time>2017-08-13T10:08:57Z</time>
      </trkpt>
      <trkpt lat="42.51535" lon="-0.13967">
        <ele>1175.6</ele>
        <time>2017-08-13T10:08:59Z</time>
      </trkpt>
      <trkpt lat="42.51534" lon="-0.13963">
        <ele>1173.2</ele>
        <time>2017-08-13T10:09:00Z</time>
      </trkpt>
      <trkpt lat="42.51532" lon="-0.1396">
        <ele>1172.5</ele>
        <time>2017-08-13T10:09:01Z</time>
      </trkpt>
      <trkpt lat="42.5153" lon="-0.13955">
        <ele>1170.2</ele>
        <time>2017-08-13T10:09:03Z</time>
      </trkpt>
      <trkpt lat="42.51528" lon="-0.13949">
        <ele>1169.8</ele>
        <time>2017-08-13T10:09:06Z</time>
      </trkpt>
      <trkpt lat="42.5153" lon="-0.13943">
        <ele>1165.8</ele>
        <time>2017-08-13T10:09:08Z</time>
      </trkpt>
      <trkpt lat="42.51531" lon="-0.13939">
        <ele>1164.9</ele>
        <time>2017-08-13T10:09:09Z</time>
      </trkpt>
      <trkpt lat="42.51531" lon="-0.13935">
        <ele>1164.1</ele>
        <time>2017-08-13T10:09:10Z</time>
      </trkpt>
      <trkpt lat="42.51531" lon="-0.13931">
        <ele>1164.1</ele>
        <time>2017-08-13T10:09:11Z</time>
      </trkpt>
      <trkpt lat="42.51531" lon="-0.13926">
        <ele>1163.5</ele>
        <time>2017-08-13T10:09:12Z</time>
      </trkpt>
      <trkpt lat="42.51531" lon="-0.13922">
        <ele>1163.2</ele>
        <time>2017-08-13T10:09:13Z</time>
      </trkpt>
      <trkpt lat="42.51528" lon="-0.13915">
        <ele>1165.3</ele>
        <time>2017-08-13T10:09:15Z</time>
      </trkpt>
      <trkpt lat="42.51526" lon="-0.1391">
        <ele>1165.4</ele>
        <time>2017-08-13T10:09:16Z</time>
      </trkpt>
      <trkpt lat="42.51524" lon="-0.13906">
        <ele>1167.1</ele>
        <time>2017-08-13T10:09:17Z</time>
      </trkpt>
      <trkpt lat="42.51522" lon="-0.13902">
        <ele>1168.5</ele>
        <time>2017-08-13T10:09:18Z</time>
      </trkpt>
      <trkpt lat="42.51521" lon="-0.13898">
        <ele>1167.9</ele>
        <time>2017-08-13T10:09:19Z</time>
      </trkpt>
      <trkpt lat="42.51519" lon="-0.13894">
        <ele>1168.7</ele>
        <time>2017-08-13T10:09:20Z</time>
      </trkpt>
      <trkpt lat="42.51518" lon="-0.1389">
        <ele>1168</ele>
        <time>2017-08-13T10:09:21Z</time>
      </trkpt>
      <trkpt lat="42.51516" lon="-0.13886">
        <ele>1168.4</ele>
        <time>2017-08-13T10:09:22Z</time>
      </trkpt>
      <trkpt lat="42.51512" lon="-0.13881">
        <ele>1168.3</ele>
        <time>2017-08-13T10:09:23Z</time>
      </trkpt>
      <trkpt lat="42.51508" lon="-0.13877">
        <ele>1167.9</ele>
        <time>2017-08-13T10:09:24Z</time>
      </trkpt>
      <trkpt lat="42.51504" lon="-0.13873">
        <ele>1167.4</ele>
        <time>2017-08-13T10:09:25Z</time>
      </trkpt>
      <trkpt lat="42.515" lon="-0.1387">
        <ele>1167.2</ele>
        <time>2017-08-13T10:09:26Z</time>
      </trkpt>
      <trkpt lat="42.51497" lon="-0.13867">
        <ele>1167.7</ele>
        <time>2017-08-13T10:09:27Z</time>
      </trkpt>
      <trkpt lat="42.51495" lon="-0.13865">
        <ele>1166.4</ele>
        <time>2017-08-13T10:09:28Z</time>
      </trkpt>
      <trkpt lat="42.51493" lon="-0.13863">
        <ele>1166.7</ele>
        <time>2017-08-13T10:09:29Z</time>
      </trkpt>
      <trkpt lat="42.5149" lon="-0.1386">
        <ele>1165.6</ele>
        <time>2017-08-13T10:09:30Z</time>
      </trkpt>
      <trkpt lat="42.51487" lon="-0.13857">
        <ele>1164.1</ele>
        <time>2017-08-13T10:09:31Z</time>
      </trkpt>
      <trkpt lat="42.51484" lon="-0.13854">
        <ele>1164.1</ele>
        <time>2017-08-13T10:09:32Z</time>
      </trkpt>
      <trkpt lat="42.51481" lon="-0.13851">
        <ele>1162</ele>
        <time>2017-08-13T10:09:33Z</time>
      </trkpt>
      <trkpt lat="42.51478" lon="-0.13848">
        <ele>1159.4</ele>
        <time>2017-08-13T10:09:34Z</time>
      </trkpt>
      <trkpt lat="42.51475" lon="-0.13845">
        <ele>1159.3</ele>
        <time>2017-08-13T10:09:35Z</time>
      </trkpt>
      <trkpt lat="42.51472" lon="-0.13842">
        <ele>1156.5</ele>
        <time>2017-08-13T10:09:36Z</time>
      </trkpt>
      <trkpt lat="42.51469" lon="-0.1384">
        <ele>1153.8</ele>
        <time>2017-08-13T10:09:37Z</time>
      </trkpt>
      <trkpt lat="42.51464" lon="-0.13838">
        <ele>1153.6</ele>
        <time>2017-08-13T10:09:39Z</time>
      </trkpt>
      <trkpt lat="42.51461" lon="-0.13836">
        <ele>1153.5</ele>
        <time>2017-08-13T10:09:42Z</time>
      </trkpt>
      <trkpt lat="42.51464" lon="-0.13834">
        <ele>1150.9</ele>
        <time>2017-08-13T10:09:45Z</time>
      </trkpt>
      <trkpt lat="42.5146" lon="-0.13833">
        <ele>1150.8</ele>
        <time>2017-08-13T10:09:57Z</time>
      </trkpt>
      <trkpt lat="42.51456" lon="-0.1383">
        <ele>1147.6</ele>
        <time>2017-08-13T10:09:59Z</time>
      </trkpt>
      <trkpt lat="42.51453" lon="-0.13827">
        <ele>1144.1</ele>
        <time>2017-08-13T10:10:01Z</time>
      </trkpt>
      <trkpt lat="42.51448" lon="-0.13824">
        <ele>1144</ele>
        <time>2017-08-13T10:10:03Z</time>
      </trkpt>
      <trkpt lat="42.51445" lon="-0.13823">
        <ele>1140.1</ele>
        <time>2017-08-13T10:10:04Z</time>
      </trkpt>
      <trkpt lat="42.51442" lon="-0.13822">
        <ele>1140.1</ele>
        <time>2017-08-13T10:10:05Z</time>
      </trkpt>
      <trkpt lat="42.51438" lon="-0.13822">
        <ele>1140.1</ele>
        <time>2017-08-13T10:10:07Z</time>
      </trkpt>
      <trkpt lat="42.51433" lon="-0.13822">
        <ele>1139.8</ele>
        <time>2017-08-13T10:10:09Z</time>
      </trkpt>
      <trkpt lat="42.5143" lon="-0.13822">
        <ele>1139.7</ele>
        <time>2017-08-13T10:10:30Z</time>
      </trkpt>
      <trkpt lat="42.51428" lon="-0.1382">
        <ele>1139.7</ele>
        <time>2017-08-13T10:10:58Z</time>
      </trkpt>
      <trkpt lat="42.51425" lon="-0.13818">
        <ele>1135.8</ele>
        <time>2017-08-13T10:11:04Z</time>
      </trkpt>
      <trkpt lat="42.51421" lon="-0.13817">
        <ele>1135.7</ele>
        <time>2017-08-13T10:11:06Z</time>
      </trkpt>
      <trkpt lat="42.51418" lon="-0.13816">
        <ele>1135.6</ele>
        <time>2017-08-13T10:11:08Z</time>
      </trkpt>
      <trkpt lat="42.51413" lon="-0.13812">
        <ele>1132.4</ele>
        <time>2017-08-13T10:11:10Z</time>
      </trkpt>
      <trkpt lat="42.51411" lon="-0.1381">
        <ele>1129.3</ele>
        <time>2017-08-13T10:11:11Z</time>
      </trkpt>
      <trkpt lat="42.51407" lon="-0.13807">
        <ele>1128.9</ele>
        <time>2017-08-13T10:11:13Z</time>
      </trkpt>
      <trkpt lat="42.51403" lon="-0.13806">
        <ele>1128.4</ele>
        <time>2017-08-13T10:11:15Z</time>
      </trkpt>
      <trkpt lat="42.51399" lon="-0.13807">
        <ele>1127</ele>
        <time>2017-08-13T10:11:17Z</time>
      </trkpt>
      <trkpt lat="42.51395" lon="-0.13807">
        <ele>1126.3</ele>
        <time>2017-08-13T10:11:19Z</time>
      </trkpt>
      <trkpt lat="42.51392" lon="-0.13806">
        <ele>1125.4</ele>
        <time>2017-08-13T10:11:21Z</time>
      </trkpt>
      <trkpt lat="42.51387" lon="-0.13804">
        <ele>1122.1</ele>
        <time>2017-08-13T10:11:23Z</time>
      </trkpt>
      <trkpt lat="42.51385" lon="-0.13803">
        <ele>1121.2</ele>
        <time>2017-08-13T10:11:24Z</time>
      </trkpt>
      <trkpt lat="42.51381" lon="-0.13802">
        <ele>1120.2</ele>
        <time>2017-08-13T10:11:25Z</time>
      </trkpt>
      <trkpt lat="42.51378" lon="-0.13801">
        <ele>1116.9</ele>
        <time>2017-08-13T10:11:26Z</time>
      </trkpt>
      <trkpt lat="42.51373" lon="-0.13802">
        <ele>1114.3</ele>
        <time>2017-08-13T10:11:28Z</time>
      </trkpt>
      <trkpt lat="42.5137" lon="-0.13803">
        <ele>1114.8</ele>
        <time>2017-08-13T10:11:31Z</time>
      </trkpt>
      <trkpt lat="42.51368" lon="-0.13802">
        <ele>1111.7</ele>
        <time>2017-08-13T10:11:38Z</time>
      </trkpt>
      <trkpt lat="42.51368" lon="-0.13797">
        <ele>1111.5</ele>
        <time>2017-08-13T10:11:43Z</time>
      </trkpt>
      <trkpt lat="42.51371" lon="-0.13793">
        <ele>1112.8</ele>
        <time>2017-08-13T10:11:46Z</time>
      </trkpt>
      <trkpt lat="42.51374" lon="-0.13791">
        <ele>1111.3</ele>
        <time>2017-08-13T10:11:49Z</time>
      </trkpt>
      <trkpt lat="42.51376" lon="-0.13789">
        <ele>1112.5</ele>
        <time>2017-08-13T10:11:54Z</time>
      </trkpt>
      <trkpt lat="42.51375" lon="-0.13785">
        <ele>1111</ele>
        <time>2017-08-13T10:12:01Z</time>
      </trkpt>
      <trkpt lat="42.51372" lon="-0.13783">
        <ele>1109.1</ele>
        <time>2017-08-13T10:12:05Z</time>
      </trkpt>
      <trkpt lat="42.5137" lon="-0.13781">
        <ele>1108.3</ele>
        <time>2017-08-13T10:12:08Z</time>
      </trkpt>
      <trkpt lat="42.51367" lon="-0.13779">
        <ele>1106.9</ele>
        <time>2017-08-13T10:12:11Z</time>
      </trkpt>
      <trkpt lat="42.51366" lon="-0.13776">
        <ele>1107</ele>
        <time>2017-08-13T10:12:19Z</time>
      </trkpt>
      <trkpt lat="42.51366" lon="-0.13771">
        <ele>1105.7</ele>
        <time>2017-08-13T10:12:21Z</time>
      </trkpt>
      <trkpt lat="42.51369" lon="-0.13767">
        <ele>1106.4</ele>
        <time>2017-08-13T10:12:23Z</time>
      </trkpt>
      <trkpt lat="42.51372" lon="-0.13766">
        <ele>1105.8</ele>
        <time>2017-08-13T10:12:25Z</time>
      </trkpt>
      <trkpt lat="42.51376" lon="-0.13765">
        <ele>1106.2</ele>
        <time>2017-08-13T10:12:27Z</time>
      </trkpt>
      <trkpt lat="42.51381" lon="-0.13766">
        <ele>1106.4</ele>
        <time>2017-08-13T10:12:29Z</time>
      </trkpt>
      <trkpt lat="42.51386" lon="-0.13764">
        <ele>1106.4</ele>
        <time>2017-08-13T10:12:31Z</time>
      </trkpt>
      <trkpt lat="42.51389" lon="-0.13764">
        <ele>1106.3</ele>
        <time>2017-08-13T10:12:32Z</time>
      </trkpt>
      <trkpt lat="42.51392" lon="-0.13763">
        <ele>1104.2</ele>
        <time>2017-08-13T10:12:33Z</time>
      </trkpt>
      <trkpt lat="42.51397" lon="-0.13761">
        <ele>1103.7</ele>
        <time>2017-08-13T10:12:35Z</time>
      </trkpt>
      <trkpt lat="42.514" lon="-0.13759">
        <ele>1103.5</ele>
        <time>2017-08-13T10:12:36Z</time>
      </trkpt>
      <trkpt lat="42.51404" lon="-0.13757">
        <ele>1101</ele>
        <time>2017-08-13T10:12:37Z</time>
      </trkpt>
      <trkpt lat="42.51409" lon="-0.13755">
        <ele>1100.7</ele>
        <time>2017-08-13T10:12:38Z</time>
      </trkpt>
      <trkpt lat="42.51413" lon="-0.13753">
        <ele>1097.4</ele>
        <time>2017-08-13T10:12:39Z</time>
      </trkpt>
      <trkpt lat="42.51417" lon="-0.13752">
        <ele>1097</ele>
        <time>2017-08-13T10:12:40Z</time>
      </trkpt>
      <trkpt lat="42.51421" lon="-0.1375">
        <ele>1096.5</ele>
        <time>2017-08-13T10:12:41Z</time>
      </trkpt>
      <trkpt lat="42.51424" lon="-0.1375">
        <ele>1093.7</ele>
        <time>2017-08-13T10:12:42Z</time>
      </trkpt>
      <trkpt lat="42.51428" lon="-0.13749">
        <ele>1093.4</ele>
        <time>2017-08-13T10:12:43Z</time>
      </trkpt>
      <trkpt lat="42.51431" lon="-0.13749">
        <ele>1093.2</ele>
        <time>2017-08-13T10:12:44Z</time>
      </trkpt>
      <trkpt lat="42.51434" lon="-0.13748">
        <ele>1093.1</ele>
        <time>2017-08-13T10:12:45Z</time>
      </trkpt>
      <trkpt lat="42.51438" lon="-0.13747">
        <ele>1093.1</ele>
        <time>2017-08-13T10:12:46Z</time>
      </trkpt>
      <trkpt lat="42.5144" lon="-0.13745">
        <ele>1090.7</ele>
        <time>2017-08-13T10:12:47Z</time>
      </trkpt>
      <trkpt lat="42.51445" lon="-0.13741">
        <ele>1088.5</ele>
        <time>2017-08-13T10:12:49Z</time>
      </trkpt>
      <trkpt lat="42.51449" lon="-0.13739">
        <ele>1088.8</ele>
        <time>2017-08-13T10:12:50Z</time>
      </trkpt>
      <trkpt lat="42.51452" lon="-0.13737">
        <ele>1086.6</ele>
        <time>2017-08-13T10:12:51Z</time>
      </trkpt>
      <trkpt lat="42.51455" lon="-0.13736">
        <ele>1087</ele>
        <time>2017-08-13T10:12:52Z</time>
      </trkpt>
      <trkpt lat="42.51459" lon="-0.13734">
        <ele>1087.5</ele>
        <time>2017-08-13T10:12:53Z</time>
      </trkpt>
      <trkpt lat="42.51464" lon="-0.13732">
        <ele>1086.3</ele>
        <time>2017-08-13T10:12:54Z</time>
      </trkpt>
      <trkpt lat="42.51468" lon="-0.13731">
        <ele>1086.9</ele>
        <time>2017-08-13T10:12:55Z</time>
      </trkpt>
      <trkpt lat="42.51472" lon="-0.1373">
        <ele>1087.7</ele>
        <time>2017-08-13T10:12:56Z</time>
      </trkpt>
      <trkpt lat="42.51477" lon="-0.13729">
        <ele>1089.1</ele>
        <time>2017-08-13T10:12:57Z</time>
      </trkpt>
      <trkpt lat="42.51481" lon="-0.13729">
        <ele>1087.4</ele>
        <time>2017-08-13T10:12:58Z</time>
      </trkpt>
      <trkpt lat="42.51484" lon="-0.13728">
        <ele>1087.8</ele>
        <time>2017-08-13T10:12:59Z</time>
      </trkpt>
      <trkpt lat="42.51487" lon="-0.13727">
        <ele>1088.2</ele>
        <time>2017-08-13T10:13:01Z</time>
      </trkpt>
      <trkpt lat="42.5149" lon="-0.13724">
        <ele>1086.4</ele>
        <time>2017-08-13T10:13:03Z</time>
      </trkpt>
      <trkpt lat="42.51492" lon="-0.13721">
        <ele>1086.5</ele>
        <time>2017-08-13T10:13:04Z</time>
      </trkpt>
      <trkpt lat="42.51494" lon="-0.13718">
        <ele>1084.5</ele>
        <time>2017-08-13T10:13:05Z</time>
      </trkpt>
      <trkpt lat="42.51498" lon="-0.13715">
        <ele>1082.6</ele>
        <time>2017-08-13T10:13:07Z</time>
      </trkpt>
      <trkpt lat="42.51501" lon="-0.13713">
        <ele>1082.7</ele>
        <time>2017-08-13T10:13:10Z</time>
      </trkpt>
      <trkpt lat="42.51497" lon="-0.13709">
        <ele>1080.6</ele>
        <time>2017-08-13T10:13:13Z</time>
      </trkpt>
      <trkpt lat="42.51494" lon="-0.13707">
        <ele>1080.6</ele>
        <time>2017-08-13T10:13:15Z</time>
      </trkpt>
      <trkpt lat="42.51499" lon="-0.13708">
        <ele>1080.8</ele>
        <time>2017-08-13T10:13:21Z</time>
      </trkpt>
      <trkpt lat="42.51502" lon="-0.13708">
        <ele>1080.9</ele>
        <time>2017-08-13T10:13:22Z</time>
      </trkpt>
      <trkpt lat="42.51505" lon="-0.13706">
        <ele>1079</ele>
        <time>2017-08-13T10:13:23Z</time>
      </trkpt>
      <trkpt lat="42.51507" lon="-0.13702">
        <ele>1077.2</ele>
        <time>2017-08-13T10:13:25Z</time>
      </trkpt>
      <trkpt lat="42.51506" lon="-0.13695">
        <ele>1075.9</ele>
        <time>2017-08-13T10:13:27Z</time>
      </trkpt>
      <trkpt lat="42.51501" lon="-0.13692">
        <ele>1074.9</ele>
        <time>2017-08-13T10:13:29Z</time>
      </trkpt>
      <trkpt lat="42.51497" lon="-0.13691">
        <ele>1074.8</ele>
        <time>2017-08-13T10:13:30Z</time>
      </trkpt>
      <trkpt lat="42.51493" lon="-0.13691">
        <ele>1074.8</ele>
        <time>2017-08-13T10:13:31Z</time>
      </trkpt>
      <trkpt lat="42.5149" lon="-0.13691">
        <ele>1074.8</ele>
        <time>2017-08-13T10:13:32Z</time>
      </trkpt>
      <trkpt lat="42.51486" lon="-0.13688">
        <ele>1073.3</ele>
        <time>2017-08-13T10:13:34Z</time>
      </trkpt>
      <trkpt lat="42.51484" lon="-0.13682">
        <ele>1071.6</ele>
        <time>2017-08-13T10:13:36Z</time>
      </trkpt>
      <trkpt lat="42.51484" lon="-0.13679">
        <ele>1070</ele>
        <time>2017-08-13T10:13:37Z</time>
      </trkpt>
      <trkpt lat="42.51482" lon="-0.13674">
        <ele>1068.6</ele>
        <time>2017-08-13T10:13:38Z</time>
      </trkpt>
      <trkpt lat="42.51481" lon="-0.13669">
        <ele>1066.2</ele>
        <time>2017-08-13T10:13:39Z</time>
      </trkpt>
      <trkpt lat="42.51479" lon="-0.13663">
        <ele>1065.3</ele>
        <time>2017-08-13T10:13:40Z</time>
      </trkpt>
      <trkpt lat="42.51477" lon="-0.13657">
        <ele>1063.6</ele>
        <time>2017-08-13T10:13:41Z</time>
      </trkpt>
      <trkpt lat="42.51475" lon="-0.13651">
        <ele>1060.6</ele>
        <time>2017-08-13T10:13:43Z</time>
      </trkpt>
      <trkpt lat="42.51472" lon="-0.13647">
        <ele>1058</ele>
        <time>2017-08-13T10:13:45Z</time>
      </trkpt>
      <trkpt lat="42.51468" lon="-0.13643">
        <ele>1057.8</ele>
        <time>2017-08-13T10:13:47Z</time>
      </trkpt>
      <trkpt lat="42.51465" lon="-0.13642">
        <ele>1056.2</ele>
        <time>2017-08-13T10:13:48Z</time>
      </trkpt>
      <trkpt lat="42.51462" lon="-0.13642">
        <ele>1055.9</ele>
        <time>2017-08-13T10:13:49Z</time>
      </trkpt>
      <trkpt lat="42.51459" lon="-0.13644">
        <ele>1057</ele>
        <time>2017-08-13T10:13:50Z</time>
      </trkpt>
      <trkpt lat="42.51457" lon="-0.13645">
        <ele>1057.1</ele>
        <time>2017-08-13T10:13:51Z</time>
      </trkpt>
      <trkpt lat="42.51454" lon="-0.13649">
        <ele>1058.5</ele>
        <time>2017-08-13T10:13:53Z</time>
      </trkpt>
      <trkpt lat="42.51451" lon="-0.13652">
        <ele>1060.2</ele>
        <time>2017-08-13T10:13:54Z</time>
      </trkpt>
      <trkpt lat="42.51447" lon="-0.13655">
        <ele>1060</ele>
        <time>2017-08-13T10:13:56Z</time>
      </trkpt>
      <trkpt lat="42.51444" lon="-0.13656">
        <ele>1062</ele>
        <time>2017-08-13T10:13:57Z</time>
      </trkpt>
      <trkpt lat="42.51441" lon="-0.13658">
        <ele>1062</ele>
        <time>2017-08-13T10:13:58Z</time>
      </trkpt>
      <trkpt lat="42.51437" lon="-0.1366">
        <ele>1062</ele>
        <time>2017-08-13T10:13:59Z</time>
      </trkpt>
      <trkpt lat="42.51433" lon="-0.13661">
        <ele>1064.5</ele>
        <time>2017-08-13T10:14:00Z</time>
      </trkpt>
      <trkpt lat="42.51429" lon="-0.1366">
        <ele>1064.6</ele>
        <time>2017-08-13T10:14:02Z</time>
      </trkpt>
      <trkpt lat="42.51429" lon="-0.13656">
        <ele>1058.7</ele>
        <time>2017-08-13T10:14:04Z</time>
      </trkpt>
      <trkpt lat="42.5143" lon="-0.13652">
        <ele>1058.8</ele>
        <time>2017-08-13T10:14:05Z</time>
      </trkpt>
      <trkpt lat="42.51433" lon="-0.13649">
        <ele>1056.4</ele>
        <time>2017-08-13T10:14:06Z</time>
      </trkpt>
      <trkpt lat="42.51436" lon="-0.13646">
        <ele>1054.6</ele>
        <time>2017-08-13T10:14:07Z</time>
      </trkpt>
      <trkpt lat="42.51438" lon="-0.13643">
        <ele>1055.5</ele>
        <time>2017-08-13T10:14:08Z</time>
      </trkpt>
      <trkpt lat="42.51439" lon="-0.1364">
        <ele>1053.5</ele>
        <time>2017-08-13T10:14:09Z</time>
      </trkpt>
      <trkpt lat="42.5144" lon="-0.13635">
        <ele>1051.8</ele>
        <time>2017-08-13T10:14:11Z</time>
      </trkpt>
      <trkpt lat="42.51437" lon="-0.13632">
        <ele>1049.1</ele>
        <time>2017-08-13T10:14:13Z</time>
      </trkpt>
      <trkpt lat="42.51434" lon="-0.13633">
        <ele>1048.1</ele>
        <time>2017-08-13T10:14:14Z</time>
      </trkpt>
      <trkpt lat="42.51431" lon="-0.13635">
        <ele>1049</ele>
        <time>2017-08-13T10:14:15Z</time>
      </trkpt>
      <trkpt lat="42.51427" lon="-0.13637">
        <ele>1048</ele>
        <time>2017-08-13T10:14:16Z</time>
      </trkpt>
      <trkpt lat="42.51424" lon="-0.13639">
        <ele>1049.1</ele>
        <time>2017-08-13T10:14:17Z</time>
      </trkpt>
      <trkpt lat="42.5142" lon="-0.1364">
        <ele>1048.2</ele>
        <time>2017-08-13T10:14:18Z</time>
      </trkpt>
      <trkpt lat="42.51416" lon="-0.1364">
        <ele>1047.5</ele>
        <time>2017-08-13T10:14:19Z</time>
      </trkpt>
      <trkpt lat="42.51412" lon="-0.13639">
        <ele>1046.8</ele>
        <time>2017-08-13T10:14:20Z</time>
      </trkpt>
      <trkpt lat="42.51409" lon="-0.13638">
        <ele>1042.8</ele>
        <time>2017-08-13T10:14:21Z</time>
      </trkpt>
      <trkpt lat="42.51405" lon="-0.13636">
        <ele>1042.1</ele>
        <time>2017-08-13T10:14:22Z</time>
      </trkpt>
      <trkpt lat="42.51401" lon="-0.13633">
        <ele>1038.8</ele>
        <time>2017-08-13T10:14:23Z</time>
      </trkpt>
      <trkpt lat="42.51397" lon="-0.13631">
        <ele>1038.2</ele>
        <time>2017-08-13T10:14:24Z</time>
      </trkpt>
      <trkpt lat="42.51393" lon="-0.13629">
        <ele>1034.5</ele>
        <time>2017-08-13T10:14:25Z</time>
      </trkpt>
      <trkpt lat="42.51389" lon="-0.13627">
        <ele>1034.2</ele>
        <time>2017-08-13T10:14:26Z</time>
      </trkpt>
      <trkpt lat="42.51386" lon="-0.13626">
        <ele>1034</ele>
        <time>2017-08-13T10:14:27Z</time>
      </trkpt>
      <trkpt lat="42.51383" lon="-0.13625">
        <ele>1031.3</ele>
        <time>2017-08-13T10:14:28Z</time>
      </trkpt>
      <trkpt lat="42.51379" lon="-0.13623">
        <ele>1031.3</ele>
        <time>2017-08-13T10:14:30Z</time>
      </trkpt>
      <trkpt lat="42.51374" lon="-0.13619">
        <ele>1029.3</ele>
        <time>2017-08-13T10:14:32Z</time>
      </trkpt>
      <trkpt lat="42.51371" lon="-0.13617">
        <ele>1027.8</ele>
        <time>2017-08-13T10:14:33Z</time>
      </trkpt>
      <trkpt lat="42.51369" lon="-0.13615">
        <ele>1028.3</ele>
        <time>2017-08-13T10:14:34Z</time>
      </trkpt>
      <trkpt lat="42.51366" lon="-0.13613">
        <ele>1028.9</ele>
        <time>2017-08-13T10:14:35Z</time>
      </trkpt>
      <trkpt lat="42.51363" lon="-0.1361">
        <ele>1027.9</ele>
        <time>2017-08-13T10:14:36Z</time>
      </trkpt>
      <trkpt lat="42.51359" lon="-0.13607">
        <ele>1026.7</ele>
        <time>2017-08-13T10:14:37Z</time>
      </trkpt>
      <trkpt lat="42.51355" lon="-0.13605">
        <ele>1027.3</ele>
        <time>2017-08-13T10:14:38Z</time>
      </trkpt>
      <trkpt lat="42.51352" lon="-0.13604">
        <ele>1025.7</ele>
        <time>2017-08-13T10:14:39Z</time>
      </trkpt>
      <trkpt lat="42.5135" lon="-0.13602">
        <ele>1026.1</ele>
        <time>2017-08-13T10:14:40Z</time>
      </trkpt>
      <trkpt lat="42.51345" lon="-0.13599">
        <ele>1025</ele>
        <time>2017-08-13T10:14:42Z</time>
      </trkpt>
      <trkpt lat="42.51341" lon="-0.13598">
        <ele>1025.3</ele>
        <time>2017-08-13T10:14:44Z</time>
      </trkpt>
      <trkpt lat="42.51335" lon="-0.13598">
        <ele>1025.4</ele>
        <time>2017-08-13T10:14:46Z</time>
      </trkpt>
      <trkpt lat="42.51332" lon="-0.13598">
        <ele>1025.3</ele>
        <time>2017-08-13T10:14:47Z</time>
      </trkpt>
      <trkpt lat="42.51328" lon="-0.13598">
        <ele>1024.9</ele>
        <time>2017-08-13T10:14:48Z</time>
      </trkpt>
      <trkpt lat="42.51325" lon="-0.13599">
        <ele>1024.3</ele>
        <time>2017-08-13T10:14:49Z</time>
      </trkpt>
      <trkpt lat="42.51323" lon="-0.136">
        <ele>1024.8</ele>
        <time>2017-08-13T10:14:50Z</time>
      </trkpt>
      <trkpt lat="42.51318" lon="-0.13602">
        <ele>1023.9</ele>
        <time>2017-08-13T10:14:52Z</time>
      </trkpt>
      <trkpt lat="42.51314" lon="-0.13603">
        <ele>1022.8</ele>
        <time>2017-08-13T10:14:55Z</time>
      </trkpt>
      <trkpt lat="42.51312" lon="-0.13607">
        <ele>1023</ele>
        <time>2017-08-13T10:14:57Z</time>
      </trkpt>
      <trkpt lat="42.51308" lon="-0.13611">
        <ele>1022.8</ele>
        <time>2017-08-13T10:15:00Z</time>
      </trkpt>
      <trkpt lat="42.51306" lon="-0.13615">
        <ele>1022.3</ele>
        <time>2017-08-13T10:15:02Z</time>
      </trkpt>
      <trkpt lat="42.51303" lon="-0.13619">
        <ele>1021.6</ele>
        <time>2017-08-13T10:15:04Z</time>
      </trkpt>
      <trkpt lat="42.51301" lon="-0.13622">
        <ele>1020.8</ele>
        <time>2017-08-13T10:15:06Z</time>
      </trkpt>
      <trkpt lat="42.51299" lon="-0.13626">
        <ele>1021.5</ele>
        <time>2017-08-13T10:15:08Z</time>
      </trkpt>
      <trkpt lat="42.51297" lon="-0.1363">
        <ele>1020.9</ele>
        <time>2017-08-13T10:15:10Z</time>
      </trkpt>
      <trkpt lat="42.51296" lon="-0.13634">
        <ele>1020.9</ele>
        <time>2017-08-13T10:15:12Z</time>
      </trkpt>
      <trkpt lat="42.51294" lon="-0.13637">
        <ele>1020.4</ele>
        <time>2017-08-13T10:15:14Z</time>
      </trkpt>
      <trkpt lat="42.51291" lon="-0.13643">
        <ele>1020.9</ele>
        <time>2017-08-13T10:15:16Z</time>
      </trkpt>
      <trkpt lat="42.51289" lon="-0.13646">
        <ele>1020.9</ele>
        <time>2017-08-13T10:15:17Z</time>
      </trkpt>
      <trkpt lat="42.51287" lon="-0.13649">
        <ele>1021</ele>
        <time>2017-08-13T10:15:18Z</time>
      </trkpt>
      <trkpt lat="42.51285" lon="-0.13652">
        <ele>1021.2</ele>
        <time>2017-08-13T10:15:19Z</time>
      </trkpt>
      <trkpt lat="42.51284" lon="-0.13655">
        <ele>1021.2</ele>
        <time>2017-08-13T10:15:20Z</time>
      </trkpt>
      <trkpt lat="42.51282" lon="-0.13661">
        <ele>1022.9</ele>
        <time>2017-08-13T10:15:22Z</time>
      </trkpt>
      <trkpt lat="42.51281" lon="-0.13668">
        <ele>1024.5</ele>
        <time>2017-08-13T10:15:24Z</time>
      </trkpt>
      <trkpt lat="42.51281" lon="-0.13672">
        <ele>1026.3</ele>
        <time>2017-08-13T10:15:26Z</time>
      </trkpt>
      <trkpt lat="42.51278" lon="-0.13678">
        <ele>1029.9</ele>
        <time>2017-08-13T10:15:28Z</time>
      </trkpt>
      <trkpt lat="42.51277" lon="-0.13681">
        <ele>1029.9</ele>
        <time>2017-08-13T10:15:29Z</time>
      </trkpt>
      <trkpt lat="42.51275" lon="-0.13684">
        <ele>1031.4</ele>
        <time>2017-08-13T10:15:30Z</time>
      </trkpt>
      <trkpt lat="42.51274" lon="-0.13687">
        <ele>1034.1</ele>
        <time>2017-08-13T10:15:31Z</time>
      </trkpt>
      <trkpt lat="42.51273" lon="-0.13692">
        <ele>1035.2</ele>
        <time>2017-08-13T10:15:33Z</time>
      </trkpt>
      <trkpt lat="42.51271" lon="-0.13695">
        <ele>1037.4</ele>
        <time>2017-08-13T10:15:35Z</time>
      </trkpt>
      <trkpt lat="42.51267" lon="-0.13701">
        <ele>1038</ele>
        <time>2017-08-13T10:15:37Z</time>
      </trkpt>
      <trkpt lat="42.51264" lon="-0.13703">
        <ele>1038.8</ele>
        <time>2017-08-13T10:15:38Z</time>
      </trkpt>
      <trkpt lat="42.51262" lon="-0.13705">
        <ele>1037.4</ele>
        <time>2017-08-13T10:15:39Z</time>
      </trkpt>
      <trkpt lat="42.51259" lon="-0.13706">
        <ele>1036.1</ele>
        <time>2017-08-13T10:15:40Z</time>
      </trkpt>
      <trkpt lat="42.51256" lon="-0.13705">
        <ele>1035</ele>
        <time>2017-08-13T10:15:41Z</time>
      </trkpt>
      <trkpt lat="42.51254" lon="-0.13703">
        <ele>1031.8</ele>
        <time>2017-08-13T10:15:42Z</time>
      </trkpt>
      <trkpt lat="42.51252" lon="-0.137">
        <ele>1031.8</ele>
        <time>2017-08-13T10:15:43Z</time>
      </trkpt>
      <trkpt lat="42.51248" lon="-0.13697">
        <ele>1029.1</ele>
        <time>2017-08-13T10:15:45Z</time>
      </trkpt>
      <trkpt lat="42.51245" lon="-0.13692">
        <ele>1026.9</ele>
        <time>2017-08-13T10:15:47Z</time>
      </trkpt>
      <trkpt lat="42.51243" lon="-0.13688">
        <ele>1025</ele>
        <time>2017-08-13T10:15:48Z</time>
      </trkpt>
      <trkpt lat="42.5124" lon="-0.13683">
        <ele>1023.4</ele>
        <time>2017-08-13T10:15:49Z</time>
      </trkpt>
      <trkpt lat="42.51238" lon="-0.13678">
        <ele>1021.8</ele>
        <time>2017-08-13T10:15:50Z</time>
      </trkpt>
      <trkpt lat="42.51236" lon="-0.13674">
        <ele>1020.6</ele>
        <time>2017-08-13T10:15:51Z</time>
      </trkpt>
      <trkpt lat="42.51234" lon="-0.1367">
        <ele>1019.4</ele>
        <time>2017-08-13T10:15:52Z</time>
      </trkpt>
      <trkpt lat="42.51232" lon="-0.13665">
        <ele>1018.6</ele>
        <time>2017-08-13T10:15:53Z</time>
      </trkpt>
      <trkpt lat="42.51231" lon="-0.13661">
        <ele>1017.5</ele>
        <time>2017-08-13T10:15:54Z</time>
      </trkpt>
      <trkpt lat="42.51229" lon="-0.13656">
        <ele>1016.3</ele>
        <time>2017-08-13T10:15:55Z</time>
      </trkpt>
      <trkpt lat="42.51227" lon="-0.13651">
        <ele>1013.4</ele>
        <time>2017-08-13T10:15:56Z</time>
      </trkpt>
      <trkpt lat="42.51226" lon="-0.13646">
        <ele>1012.1</ele>
        <time>2017-08-13T10:15:57Z</time>
      </trkpt>
      <trkpt lat="42.51225" lon="-0.13642">
        <ele>1011</ele>
        <time>2017-08-13T10:15:58Z</time>
      </trkpt>
      <trkpt lat="42.51223" lon="-0.13638">
        <ele>1009.9</ele>
        <time>2017-08-13T10:15:59Z</time>
      </trkpt>
      <trkpt lat="42.51221" lon="-0.13634">
        <ele>1008.6</ele>
        <time>2017-08-13T10:16:00Z</time>
      </trkpt>
      <trkpt lat="42.51219" lon="-0.13629">
        <ele>1007</ele>
        <time>2017-08-13T10:16:01Z</time>
      </trkpt>
      <trkpt lat="42.51216" lon="-0.13625">
        <ele>1005.3</ele>
        <time>2017-08-13T10:16:02Z</time>
      </trkpt>
      <trkpt lat="42.51214" lon="-0.13621">
        <ele>1003.3</ele>
        <time>2017-08-13T10:16:03Z</time>
      </trkpt>
      <trkpt lat="42.51211" lon="-0.13617">
        <ele>1003.1</ele>
        <time>2017-08-13T10:16:04Z</time>
      </trkpt>
      <trkpt lat="42.51206" lon="-0.13614">
        <ele>1000.8</ele>
        <time>2017-08-13T10:16:05Z</time>
      </trkpt>
      <trkpt lat="42.51202" lon="-0.13612">
        <ele>998.9</ele>
        <time>2017-08-13T10:16:06Z</time>
      </trkpt>
      <trkpt lat="42.51199" lon="-0.13611">
        <ele>998.6</ele>
        <time>2017-08-13T10:16:07Z</time>
      </trkpt>
      <trkpt lat="42.51195" lon="-0.13611">
        <ele>998.3</ele>
        <time>2017-08-13T10:16:08Z</time>
      </trkpt>
      <trkpt lat="42.51192" lon="-0.13611">
        <ele>998</ele>
        <time>2017-08-13T10:16:09Z</time>
      </trkpt>
      <trkpt lat="42.51188" lon="-0.13612">
        <ele>997.7</ele>
        <time>2017-08-13T10:16:11Z</time>
      </trkpt>
      <trkpt lat="42.51189" lon="-0.13607">
        <ele>996</ele>
        <time>2017-08-13T10:16:15Z</time>
      </trkpt>
      <trkpt lat="42.51192" lon="-0.13606">
        <ele>996.4</ele>
        <time>2017-08-13T10:16:27Z</time>
      </trkpt>
      <trkpt lat="42.51192" lon="-0.13602">
        <ele>994.3</ele>
        <time>2017-08-13T10:16:34Z</time>
      </trkpt>
      <trkpt lat="42.51194" lon="-0.13599">
        <ele>992.2</ele>
        <time>2017-08-13T10:16:40Z</time>
      </trkpt>
      <trkpt lat="42.51193" lon="-0.13594">
        <ele>989.6</ele>
        <time>2017-08-13T10:16:44Z</time>
      </trkpt>
      <trkpt lat="42.51194" lon="-0.1359">
        <ele>987.4</ele>
        <time>2017-08-13T10:16:50Z</time>
      </trkpt>
      <trkpt lat="42.51197" lon="-0.13585">
        <ele>985.3</ele>
        <time>2017-08-13T10:16:52Z</time>
      </trkpt>
      <trkpt lat="42.51199" lon="-0.13582">
        <ele>983.2</ele>
        <time>2017-08-13T10:16:53Z</time>
      </trkpt>
      <trkpt lat="42.51202" lon="-0.13579">
        <ele>983.1</ele>
        <time>2017-08-13T10:16:54Z</time>
      </trkpt>
      <trkpt lat="42.51204" lon="-0.13575">
        <ele>980.7</ele>
        <time>2017-08-13T10:16:56Z</time>
      </trkpt>
      <trkpt lat="42.51209" lon="-0.13573">
        <ele>978</ele>
        <time>2017-08-13T10:16:58Z</time>
      </trkpt>
      <trkpt lat="42.51213" lon="-0.13572">
        <ele>977.8</ele>
        <time>2017-08-13T10:17:00Z</time>
      </trkpt>
      <trkpt lat="42.5121" lon="-0.13569">
        <ele>975.2</ele>
        <time>2017-08-13T10:17:03Z</time>
      </trkpt>
      <trkpt lat="42.51206" lon="-0.13565">
        <ele>973.1</ele>
        <time>2017-08-13T10:17:05Z</time>
      </trkpt>
      <trkpt lat="42.51203" lon="-0.13563">
        <ele>973.3</ele>
        <time>2017-08-13T10:17:07Z</time>
      </trkpt>
      <trkpt lat="42.51205" lon="-0.1356">
        <ele>970.9</ele>
        <time>2017-08-13T10:17:11Z</time>
      </trkpt>
      <trkpt lat="42.5121" lon="-0.13559">
        <ele>970.5</ele>
        <time>2017-08-13T10:17:13Z</time>
      </trkpt>
      <trkpt lat="42.51214" lon="-0.13557">
        <ele>970.3</ele>
        <time>2017-08-13T10:17:15Z</time>
      </trkpt>
      <trkpt lat="42.51214" lon="-0.13553">
        <ele>968.5</ele>
        <time>2017-08-13T10:17:17Z</time>
      </trkpt>
      <trkpt lat="42.51213" lon="-0.13549">
        <ele>966.6</ele>
        <time>2017-08-13T10:17:18Z</time>
      </trkpt>
      <trkpt lat="42.51211" lon="-0.13545">
        <ele>964.8</ele>
        <time>2017-08-13T10:17:19Z</time>
      </trkpt>
      <trkpt lat="42.51209" lon="-0.13542">
        <ele>962.7</ele>
        <time>2017-08-13T10:17:20Z</time>
      </trkpt>
      <trkpt lat="42.51206" lon="-0.13539">
        <ele>960.4</ele>
        <time>2017-08-13T10:17:22Z</time>
      </trkpt>
      <trkpt lat="42.51204" lon="-0.13537">
        <ele>960.4</ele>
        <time>2017-08-13T10:17:24Z</time>
      </trkpt>
      <trkpt lat="42.51205" lon="-0.13533">
        <ele>958.4</ele>
        <time>2017-08-13T10:17:28Z</time>
      </trkpt>
      <trkpt lat="42.51205" lon="-0.13529">
        <ele>956.6</ele>
        <time>2017-08-13T10:17:31Z</time>
      </trkpt>
      <trkpt lat="42.51206" lon="-0.13526">
        <ele>954.9</ele>
        <time>2017-08-13T10:17:34Z</time>
      </trkpt>
      <trkpt lat="42.51209" lon="-0.13524">
        <ele>955.3</ele>
        <time>2017-08-13T10:17:36Z</time>
      </trkpt>
      <trkpt lat="42.5121" lon="-0.13521">
        <ele>953.8</ele>
        <time>2017-08-13T10:17:39Z</time>
      </trkpt>
      <trkpt lat="42.51208" lon="-0.13518">
        <ele>951.4</ele>
        <time>2017-08-13T10:17:41Z</time>
      </trkpt>
      <trkpt lat="42.51205" lon="-0.13514">
        <ele>949.1</ele>
        <time>2017-08-13T10:17:43Z</time>
      </trkpt>
      <trkpt lat="42.51202" lon="-0.1351">
        <ele>947.1</ele>
        <time>2017-08-13T10:17:45Z</time>
      </trkpt>
      <trkpt lat="42.51199" lon="-0.13507">
        <ele>946.9</ele>
        <time>2017-08-13T10:17:47Z</time>
      </trkpt>
      <trkpt lat="42.51197" lon="-0.13504">
        <ele>945.4</ele>
        <time>2017-08-13T10:17:50Z</time>
      </trkpt>
      <trkpt lat="42.51199" lon="-0.135">
        <ele>944.3</ele>
        <time>2017-08-13T10:17:52Z</time>
      </trkpt>
      <trkpt lat="42.51202" lon="-0.13495">
        <ele>943.3</ele>
        <time>2017-08-13T10:17:54Z</time>
      </trkpt>
      <trkpt lat="42.51202" lon="-0.13491">
        <ele>942.1</ele>
        <time>2017-08-13T10:17:56Z</time>
      </trkpt>
      <trkpt lat="42.51201" lon="-0.13487">
        <ele>940.9</ele>
        <time>2017-08-13T10:17:58Z</time>
      </trkpt>
      <trkpt lat="42.51203" lon="-0.13482">
        <ele>939.8</ele>
        <time>2017-08-13T10:18:00Z</time>
      </trkpt>
      <trkpt lat="42.51205" lon="-0.13477">
        <ele>938.9</ele>
        <time>2017-08-13T10:18:02Z</time>
      </trkpt>
      <trkpt lat="42.51208" lon="-0.13473">
        <ele>938.3</ele>
        <time>2017-08-13T10:18:04Z</time>
      </trkpt>
      <trkpt lat="42.5121" lon="-0.13468">
        <ele>937.8</ele>
        <time>2017-08-13T10:18:06Z</time>
      </trkpt>
      <trkpt lat="42.51212" lon="-0.13465">
        <ele>937</ele>
        <time>2017-08-13T10:18:08Z</time>
      </trkpt>
      <trkpt lat="42.51214" lon="-0.13461">
        <ele>936.2</ele>
        <time>2017-08-13T10:18:10Z</time>
      </trkpt>
      <trkpt lat="42.51214" lon="-0.13457">
        <ele>935.2</ele>
        <time>2017-08-13T10:18:12Z</time>
      </trkpt>
      <trkpt lat="42.51211" lon="-0.13452">
        <ele>934.1</ele>
        <time>2017-08-13T10:18:14Z</time>
      </trkpt>
      <trkpt lat="42.51209" lon="-0.13445">
        <ele>931.8</ele>
        <time>2017-08-13T10:18:16Z</time>
      </trkpt>
      <trkpt lat="42.51208" lon="-0.13441">
        <ele>931.8</ele>
        <time>2017-08-13T10:18:17Z</time>
      </trkpt>
      <trkpt lat="42.51206" lon="-0.13438">
        <ele>930.6</ele>
        <time>2017-08-13T10:18:18Z</time>
      </trkpt>
      <trkpt lat="42.51205" lon="-0.13435">
        <ele>928.7</ele>
        <time>2017-08-13T10:18:19Z</time>
      </trkpt>
      <trkpt lat="42.51203" lon="-0.1343">
        <ele>926.9</ele>
        <time>2017-08-13T10:18:21Z</time>
      </trkpt>
      <trkpt lat="42.51205" lon="-0.13424">
        <ele>923.2</ele>
        <time>2017-08-13T10:18:23Z</time>
      </trkpt>
      <trkpt lat="42.51208" lon="-0.13418">
        <ele>921.7</ele>
        <time>2017-08-13T10:18:25Z</time>
      </trkpt>
      <trkpt lat="42.51211" lon="-0.13416">
        <ele>921.8</ele>
        <time>2017-08-13T10:18:26Z</time>
      </trkpt>
      <trkpt lat="42.51214" lon="-0.13413">
        <ele>920.1</ele>
        <time>2017-08-13T10:18:27Z</time>
      </trkpt>
      <trkpt lat="42.51217" lon="-0.13411">
        <ele>918</ele>
        <time>2017-08-13T10:18:28Z</time>
      </trkpt>
      <trkpt lat="42.5122" lon="-0.13409">
        <ele>917.8</ele>
        <time>2017-08-13T10:18:29Z</time>
      </trkpt>
      <trkpt lat="42.51222" lon="-0.13407">
        <ele>915.3</ele>
        <time>2017-08-13T10:18:31Z</time>
      </trkpt>
      <trkpt lat="42.5122" lon="-0.13404">
        <ele>915.6</ele>
        <time>2017-08-13T10:18:49Z</time>
      </trkpt>
      <trkpt lat="42.51222" lon="-0.13398">
        <ele>910.9</ele>
        <time>2017-08-13T10:18:51Z</time>
      </trkpt>
      <trkpt lat="42.51226" lon="-0.13394">
        <ele>910.4</ele>
        <time>2017-08-13T10:18:53Z</time>
      </trkpt>
      <trkpt lat="42.51227" lon="-0.1339">
        <ele>908.6</ele>
        <time>2017-08-13T10:18:55Z</time>
      </trkpt>
      <trkpt lat="42.51226" lon="-0.13385">
        <ele>905.9</ele>
        <time>2017-08-13T10:18:57Z</time>
      </trkpt>
      <trkpt lat="42.51225" lon="-0.13381">
        <ele>906.4</ele>
        <time>2017-08-13T10:18:59Z</time>
      </trkpt>
      <trkpt lat="42.51224" lon="-0.13376">
        <ele>904</ele>
        <time>2017-08-13T10:19:01Z</time>
      </trkpt>
      <trkpt lat="42.51223" lon="-0.13369">
        <ele>903</ele>
        <time>2017-08-13T10:19:03Z</time>
      </trkpt>
      <trkpt lat="42.51222" lon="-0.13363">
        <ele>901.5</ele>
        <time>2017-08-13T10:19:05Z</time>
      </trkpt>
      <trkpt lat="42.51224" lon="-0.13357">
        <ele>900.9</ele>
        <time>2017-08-13T10:19:07Z</time>
      </trkpt>
      <trkpt lat="42.51226" lon="-0.13355">
        <ele>900.1</ele>
        <time>2017-08-13T10:19:08Z</time>
      </trkpt>
      <trkpt lat="42.51228" lon="-0.13352">
        <ele>900.1</ele>
        <time>2017-08-13T10:19:09Z</time>
      </trkpt>
      <trkpt lat="42.5123" lon="-0.1335">
        <ele>899.3</ele>
        <time>2017-08-13T10:19:10Z</time>
      </trkpt>
      <trkpt lat="42.51233" lon="-0.13348">
        <ele>899.4</ele>
        <time>2017-08-13T10:19:11Z</time>
      </trkpt>
      <trkpt lat="42.51232" lon="-0.13344">
        <ele>898.3</ele>
        <time>2017-08-13T10:19:14Z</time>
      </trkpt>
      <trkpt lat="42.51227" lon="-0.13343">
        <ele>897.9</ele>
        <time>2017-08-13T10:19:16Z</time>
      </trkpt>
      <trkpt lat="42.51223" lon="-0.13342">
        <ele>897.7</ele>
        <time>2017-08-13T10:19:18Z</time>
      </trkpt>
      <trkpt lat="42.51227" lon="-0.13345">
        <ele>897.9</ele>
        <time>2017-08-13T10:19:36Z</time>
      </trkpt>
      <trkpt lat="42.51221" lon="-0.13344">
        <ele>897.5</ele>
        <time>2017-08-13T10:19:38Z</time>
      </trkpt>
      <trkpt lat="42.51216" lon="-0.13344">
        <ele>897.3</ele>
        <time>2017-08-13T10:19:40Z</time>
      </trkpt>
      <trkpt lat="42.51211" lon="-0.13345">
        <ele>897.2</ele>
        <time>2017-08-13T10:19:42Z</time>
      </trkpt>
      <trkpt lat="42.51206" lon="-0.13344">
        <ele>897</ele>
        <time>2017-08-13T10:19:44Z</time>
      </trkpt>
      <trkpt lat="42.51203" lon="-0.13344">
        <ele>896.9</ele>
        <time>2017-08-13T10:19:45Z</time>
      </trkpt>
      <trkpt lat="42.512" lon="-0.13344">
        <ele>896.8</ele>
        <time>2017-08-13T10:19:46Z</time>
      </trkpt>
      <trkpt lat="42.51197" lon="-0.13345">
        <ele>896.6</ele>
        <time>2017-08-13T10:19:47Z</time>
      </trkpt>
      <trkpt lat="42.51194" lon="-0.13346">
        <ele>896.6</ele>
        <time>2017-08-13T10:19:48Z</time>
      </trkpt>
      <trkpt lat="42.51191" lon="-0.13347">
        <ele>897.8</ele>
        <time>2017-08-13T10:19:49Z</time>
      </trkpt>
      <trkpt lat="42.51188" lon="-0.13347">
        <ele>897.6</ele>
        <time>2017-08-13T10:19:50Z</time>
      </trkpt>
      <trkpt lat="42.51184" lon="-0.13347">
        <ele>897.4</ele>
        <time>2017-08-13T10:19:52Z</time>
      </trkpt>
      <trkpt lat="42.51182" lon="-0.13344">
        <ele>895.7</ele>
        <time>2017-08-13T10:19:54Z</time>
      </trkpt>
      <trkpt lat="42.51182" lon="-0.1334">
        <ele>894.3</ele>
        <time>2017-08-13T10:19:56Z</time>
      </trkpt>
      <trkpt lat="42.51183" lon="-0.13335">
        <ele>893.2</ele>
        <time>2017-08-13T10:19:58Z</time>
      </trkpt>
      <trkpt lat="42.51185" lon="-0.13331">
        <ele>892.4</ele>
        <time>2017-08-13T10:20:00Z</time>
      </trkpt>
      <trkpt lat="42.51185" lon="-0.13325">
        <ele>891.3</ele>
        <time>2017-08-13T10:20:02Z</time>
      </trkpt>
      <trkpt lat="42.51184" lon="-0.13319">
        <ele>888.7</ele>
        <time>2017-08-13T10:20:04Z</time>
      </trkpt>
      <trkpt lat="42.51184" lon="-0.13314">
        <ele>887.3</ele>
        <time>2017-08-13T10:20:06Z</time>
      </trkpt>
      <trkpt lat="42.51185" lon="-0.13308">
        <ele>884.4</ele>
        <time>2017-08-13T10:20:09Z</time>
      </trkpt>
      <trkpt lat="42.51184" lon="-0.13302">
        <ele>882.7</ele>
        <time>2017-08-13T10:20:11Z</time>
      </trkpt>
      <trkpt lat="42.51183" lon="-0.13297">
        <ele>880.8</ele>
        <time>2017-08-13T10:20:13Z</time>
      </trkpt>
      <trkpt lat="42.51183" lon="-0.13293">
        <ele>878.6</ele>
        <time>2017-08-13T10:20:15Z</time>
      </trkpt>
      <trkpt lat="42.51185" lon="-0.13289">
        <ele>876.4</ele>
        <time>2017-08-13T10:20:17Z</time>
      </trkpt>
      <trkpt lat="42.51187" lon="-0.13284">
        <ele>874.4</ele>
        <time>2017-08-13T10:20:19Z</time>
      </trkpt>
      <trkpt lat="42.51187" lon="-0.1328">
        <ele>872.7</ele>
        <time>2017-08-13T10:20:21Z</time>
      </trkpt>
      <trkpt lat="42.51187" lon="-0.13276">
        <ele>871.4</ele>
        <time>2017-08-13T10:20:23Z</time>
      </trkpt>
      <trkpt lat="42.51187" lon="-0.13271">
        <ele>870.2</ele>
        <time>2017-08-13T10:20:25Z</time>
      </trkpt>
      <trkpt lat="42.51188" lon="-0.13268">
        <ele>869.2</ele>
        <time>2017-08-13T10:20:27Z</time>
      </trkpt>
      <trkpt lat="42.51191" lon="-0.13266">
        <ele>869.4</ele>
        <time>2017-08-13T10:20:29Z</time>
      </trkpt>
      <trkpt lat="42.51192" lon="-0.13262">
        <ele>868.4</ele>
        <time>2017-08-13T10:21:15Z</time>
      </trkpt>
      <trkpt lat="42.51192" lon="-0.13255">
        <ele>866.9</ele>
        <time>2017-08-13T10:21:17Z</time>
      </trkpt>
      <trkpt lat="42.51194" lon="-0.1325">
        <ele>866.5</ele>
        <time>2017-08-13T10:21:19Z</time>
      </trkpt>
      <trkpt lat="42.51197" lon="-0.13245">
        <ele>865.9</ele>
        <time>2017-08-13T10:21:21Z</time>
      </trkpt>
      <trkpt lat="42.51198" lon="-0.1324">
        <ele>865</ele>
        <time>2017-08-13T10:21:23Z</time>
      </trkpt>
      <trkpt lat="42.51198" lon="-0.13235">
        <ele>864</ele>
        <time>2017-08-13T10:21:25Z</time>
      </trkpt>
      <trkpt lat="42.51197" lon="-0.13229">
        <ele>861.8</ele>
        <time>2017-08-13T10:21:28Z</time>
      </trkpt>
      <trkpt lat="42.51195" lon="-0.13224">
        <ele>862.2</ele>
        <time>2017-08-13T10:21:30Z</time>
      </trkpt>
      <trkpt lat="42.51193" lon="-0.13217">
        <ele>862.5</ele>
        <time>2017-08-13T10:21:32Z</time>
      </trkpt>
      <trkpt lat="42.51192" lon="-0.13213">
        <ele>862.8</ele>
        <time>2017-08-13T10:21:33Z</time>
      </trkpt>
      <trkpt lat="42.5119" lon="-0.13207">
        <ele>863.1</ele>
        <time>2017-08-13T10:21:35Z</time>
      </trkpt>
      <trkpt lat="42.51187" lon="-0.13205">
        <ele>863.3</ele>
        <time>2017-08-13T10:21:38Z</time>
      </trkpt>
      <trkpt lat="42.5119" lon="-0.13205">
        <ele>863.6</ele>
        <time>2017-08-13T10:21:50Z</time>
      </trkpt>
      <trkpt lat="42.51193" lon="-0.13203">
        <ele>863.8</ele>
        <time>2017-08-13T10:21:53Z</time>
      </trkpt>
      <trkpt lat="42.51196" lon="-0.13201">
        <ele>864.1</ele>
        <time>2017-08-13T10:21:56Z</time>
      </trkpt>
      <trkpt lat="42.51192" lon="-0.13203">
        <ele>864.3</ele>
        <time>2017-08-13T10:22:38Z</time>
      </trkpt>
      <trkpt lat="42.51191" lon="-0.13207">
        <ele>864.6</ele>
        <time>2017-08-13T10:23:42Z</time>
      </trkpt>
      <trkpt lat="42.51187" lon="-0.13207">
        <ele>864.8</ele>
        <time>2017-08-13T10:23:44Z</time>
      </trkpt>
      <trkpt lat="42.51183" lon="-0.13208">
        <ele>865.2</ele>
        <time>2017-08-13T10:23:46Z</time>
      </trkpt>
      <trkpt lat="42.51179" lon="-0.13207">
        <ele>865.5</ele>
        <time>2017-08-13T10:23:48Z</time>
      </trkpt>
      <trkpt lat="42.51175" lon="-0.13206">
        <ele>865.8</ele>
        <time>2017-08-13T10:23:50Z</time>
      </trkpt>
      <trkpt lat="42.5117" lon="-0.13204">
        <ele>866.1</ele>
        <time>2017-08-13T10:23:52Z</time>
      </trkpt>
      <trkpt lat="42.51166" lon="-0.13203">
        <ele>866.4</ele>
        <time>2017-08-13T10:23:54Z</time>
      </trkpt>
      <trkpt lat="42.51163" lon="-0.13202">
        <ele>866.6</ele>
        <time>2017-08-13T10:23:56Z</time>
      </trkpt>
      <trkpt lat="42.5116" lon="-0.13201">
        <ele>866.8</ele>
        <time>2017-08-13T10:23:58Z</time>
      </trkpt>
      <trkpt lat="42.51154" lon="-0.132">
        <ele>867.1</ele>
        <time>2017-08-13T10:24:00Z</time>
      </trkpt>
      <trkpt lat="42.51151" lon="-0.13199">
        <ele>867.2</ele>
        <time>2017-08-13T10:24:01Z</time>
      </trkpt>
      <trkpt lat="42.51148" lon="-0.13198">
        <ele>867.4</ele>
        <time>2017-08-13T10:24:02Z</time>
      </trkpt>
      <trkpt lat="42.51145" lon="-0.13197">
        <ele>867.5</ele>
        <time>2017-08-13T10:24:03Z</time>
      </trkpt>
      <trkpt lat="42.51142" lon="-0.13196">
        <ele>867.7</ele>
        <time>2017-08-13T10:24:04Z</time>
      </trkpt>
      <trkpt lat="42.5114" lon="-0.13195">
        <ele>867.8</ele>
        <time>2017-08-13T10:24:05Z</time>
      </trkpt>
      <trkpt lat="42.51134" lon="-0.13192">
        <ele>868.1</ele>
        <time>2017-08-13T10:24:07Z</time>
      </trkpt>
      <trkpt lat="42.51132" lon="-0.13191">
        <ele>868.2</ele>
        <time>2017-08-13T10:24:08Z</time>
      </trkpt>
      <trkpt lat="42.51129" lon="-0.1319">
        <ele>868.3</ele>
        <time>2017-08-13T10:24:09Z</time>
      </trkpt>
      <trkpt lat="42.51126" lon="-0.13189">
        <ele>868.5</ele>
        <time>2017-08-13T10:24:10Z</time>
      </trkpt>
      <trkpt lat="42.51124" lon="-0.13188">
        <ele>868.6</ele>
        <time>2017-08-13T10:24:11Z</time>
      </trkpt>
      <trkpt lat="42.51121" lon="-0.13188">
        <ele>868.7</ele>
        <time>2017-08-13T10:24:12Z</time>
      </trkpt>
      <trkpt lat="42.51118" lon="-0.13187">
        <ele>868.8</ele>
        <time>2017-08-13T10:24:13Z</time>
      </trkpt>
      <trkpt lat="42.51114" lon="-0.13186">
        <ele>869.1</ele>
        <time>2017-08-13T10:24:15Z</time>
      </trkpt>
      <trkpt lat="42.51109" lon="-0.13185">
        <ele>869.2</ele>
        <time>2017-08-13T10:24:17Z</time>
      </trkpt>
      <trkpt lat="42.51105" lon="-0.13185">
        <ele>869.4</ele>
        <time>2017-08-13T10:24:19Z</time>
      </trkpt>
      <trkpt lat="42.51101" lon="-0.13185">
        <ele>869.6</ele>
        <time>2017-08-13T10:24:21Z</time>
      </trkpt>
      <trkpt lat="42.51097" lon="-0.13184">
        <ele>869.8</ele>
        <time>2017-08-13T10:24:23Z</time>
      </trkpt>
      <trkpt lat="42.51092" lon="-0.13184">
        <ele>870</ele>
        <time>2017-08-13T10:24:25Z</time>
      </trkpt>
      <trkpt lat="42.51088" lon="-0.13184">
        <ele>870.1</ele>
        <time>2017-08-13T10:24:27Z</time>
      </trkpt>
      <trkpt lat="42.51084" lon="-0.13185">
        <ele>870.3</ele>
        <time>2017-08-13T10:24:29Z</time>
      </trkpt>
      <trkpt lat="42.51079" lon="-0.13186">
        <ele>870.5</ele>
        <time>2017-08-13T10:24:31Z</time>
      </trkpt>
      <trkpt lat="42.51074" lon="-0.13187">
        <ele>870.7</ele>
        <time>2017-08-13T10:24:33Z</time>
      </trkpt>
      <trkpt lat="42.51069" lon="-0.13188">
        <ele>870.9</ele>
        <time>2017-08-13T10:24:35Z</time>
      </trkpt>
      <trkpt lat="42.51065" lon="-0.13188">
        <ele>871.1</ele>
        <time>2017-08-13T10:24:37Z</time>
      </trkpt>
      <trkpt lat="42.5106" lon="-0.13188">
        <ele>871.3</ele>
        <time>2017-08-13T10:24:39Z</time>
      </trkpt>
      <trkpt lat="42.51056" lon="-0.13188">
        <ele>871.4</ele>
        <time>2017-08-13T10:24:41Z</time>
      </trkpt>
      <trkpt lat="42.51051" lon="-0.13187">
        <ele>871.5</ele>
        <time>2017-08-13T10:24:43Z</time>
      </trkpt>
      <trkpt lat="42.51046" lon="-0.13186">
        <ele>871.6</ele>
        <time>2017-08-13T10:24:45Z</time>
      </trkpt>
      <trkpt lat="42.51041" lon="-0.13185">
        <ele>871.7</ele>
        <time>2017-08-13T10:24:47Z</time>
      </trkpt>
      <trkpt lat="42.51038" lon="-0.13185">
        <ele>871.7</ele>
        <time>2017-08-13T10:24:48Z</time>
      </trkpt>
      <trkpt lat="42.51035" lon="-0.13184">
        <ele>871.8</ele>
        <time>2017-08-13T10:24:49Z</time>
      </trkpt>
      <trkpt lat="42.51032" lon="-0.13184">
        <ele>871.8</ele>
        <time>2017-08-13T10:24:50Z</time>
      </trkpt>
      <trkpt lat="42.51029" lon="-0.13184">
        <ele>871.8</ele>
        <time>2017-08-13T10:24:51Z</time>
      </trkpt>
      <trkpt lat="42.51027" lon="-0.13183">
        <ele>871.9</ele>
        <time>2017-08-13T10:24:52Z</time>
      </trkpt>
      <trkpt lat="42.51024" lon="-0.13183">
        <ele>871.9</ele>
        <time>2017-08-13T10:24:53Z</time>
      </trkpt>
      <trkpt lat="42.51021" lon="-0.13182">
        <ele>871.9</ele>
        <time>2017-08-13T10:24:54Z</time>
      </trkpt>
      <trkpt lat="42.51018" lon="-0.13181">
        <ele>872</ele>
        <time>2017-08-13T10:24:55Z</time>
      </trkpt>
      <trkpt lat="42.51015" lon="-0.13181">
        <ele>872</ele>
        <time>2017-08-13T10:24:56Z</time>
      </trkpt>
      <trkpt lat="42.51012" lon="-0.1318">
        <ele>872</ele>
        <time>2017-08-13T10:24:57Z</time>
      </trkpt>
      <trkpt lat="42.51007" lon="-0.13181">
        <ele>872</ele>
        <time>2017-08-13T10:24:59Z</time>
      </trkpt>
      <trkpt lat="42.51002" lon="-0.1318">
        <ele>872</ele>
        <time>2017-08-13T10:25:01Z</time>
      </trkpt>
      <trkpt lat="42.50997" lon="-0.13179">
        <ele>872</ele>
        <time>2017-08-13T10:25:03Z</time>
      </trkpt>
      <trkpt lat="42.50994" lon="-0.13178">
        <ele>872</ele>
        <time>2017-08-13T10:25:04Z</time>
      </trkpt>
      <trkpt lat="42.50991" lon="-0.13178">
        <ele>872</ele>
        <time>2017-08-13T10:25:05Z</time>
      </trkpt>
      <trkpt lat="42.50988" lon="-0.13178">
        <ele>872</ele>
        <time>2017-08-13T10:25:06Z</time>
      </trkpt>
      <trkpt lat="42.50985" lon="-0.13178">
        <ele>872</ele>
        <time>2017-08-13T10:25:07Z</time>
      </trkpt>
      <trkpt lat="42.50982" lon="-0.13179">
        <ele>872</ele>
        <time>2017-08-13T10:25:08Z</time>
      </trkpt>
      <trkpt lat="42.50979" lon="-0.1318">
        <ele>872</ele>
        <time>2017-08-13T10:25:09Z</time>
      </trkpt>
      <trkpt lat="42.50976" lon="-0.13182">
        <ele>872</ele>
        <time>2017-08-13T10:25:10Z</time>
      </trkpt>
      <trkpt lat="42.50974" lon="-0.13184">
        <ele>872</ele>
        <time>2017-08-13T10:25:11Z</time>
      </trkpt>
      <trkpt lat="42.50971" lon="-0.13185">
        <ele>872</ele>
        <time>2017-08-13T10:25:12Z</time>
      </trkpt>
      <trkpt lat="42.50967" lon="-0.1319">
        <ele>872</ele>
        <time>2017-08-13T10:25:14Z</time>
      </trkpt>
      <trkpt lat="42.50965" lon="-0.13194">
        <ele>872</ele>
        <time>2017-08-13T10:25:16Z</time>
      </trkpt>
      <trkpt lat="42.50961" lon="-0.132">
        <ele>872</ele>
        <time>2017-08-13T10:25:18Z</time>
      </trkpt>
      <trkpt lat="42.50958" lon="-0.13205">
        <ele>872</ele>
        <time>2017-08-13T10:25:20Z</time>
      </trkpt>
      <trkpt lat="42.50955" lon="-0.13209">
        <ele>872</ele>
        <time>2017-08-13T10:25:22Z</time>
      </trkpt>
      <trkpt lat="42.50951" lon="-0.13212">
        <ele>872</ele>
        <time>2017-08-13T10:25:24Z</time>
      </trkpt>
      <trkpt lat="42.50947" lon="-0.13215">
        <ele>872</ele>
        <time>2017-08-13T10:25:26Z</time>
      </trkpt>
      <trkpt lat="42.50944" lon="-0.13217">
        <ele>872</ele>
        <time>2017-08-13T10:25:28Z</time>
      </trkpt>
      <trkpt lat="42.5094" lon="-0.13219">
        <ele>872</ele>
        <time>2017-08-13T10:25:30Z</time>
      </trkpt>
      <trkpt lat="42.50936" lon="-0.13221">
        <ele>872</ele>
        <time>2017-08-13T10:25:32Z</time>
      </trkpt>
      <trkpt lat="42.50932" lon="-0.13225">
        <ele>871.9</ele>
        <time>2017-08-13T10:25:34Z</time>
      </trkpt>
      <trkpt lat="42.50928" lon="-0.13229">
        <ele>871.8</ele>
        <time>2017-08-13T10:25:36Z</time>
      </trkpt>
      <trkpt lat="42.50925" lon="-0.13232">
        <ele>871.7</ele>
        <time>2017-08-13T10:25:37Z</time>
      </trkpt>
      <trkpt lat="42.50923" lon="-0.13235">
        <ele>871.7</ele>
        <time>2017-08-13T10:25:38Z</time>
      </trkpt>
      <trkpt lat="42.5092" lon="-0.13238">
        <ele>871.6</ele>
        <time>2017-08-13T10:25:39Z</time>
      </trkpt>
      <trkpt lat="42.50917" lon="-0.13241">
        <ele>871.5</ele>
        <time>2017-08-13T10:25:40Z</time>
      </trkpt>
      <trkpt lat="42.50915" lon="-0.13244">
        <ele>871.3</ele>
        <time>2017-08-13T10:25:41Z</time>
      </trkpt>
      <trkpt lat="42.50912" lon="-0.13247">
        <ele>871.1</ele>
        <time>2017-08-13T10:25:42Z</time>
      </trkpt>
      <trkpt lat="42.50909" lon="-0.13251">
        <ele>870.8</ele>
        <time>2017-08-13T10:25:43Z</time>
      </trkpt>
      <trkpt lat="42.50906" lon="-0.13255">
        <ele>870.5</ele>
        <time>2017-08-13T10:25:44Z</time>
      </trkpt>
      <trkpt lat="42.50904" lon="-0.13259">
        <ele>870.2</ele>
        <time>2017-08-13T10:25:45Z</time>
      </trkpt>
      <trkpt lat="42.50901" lon="-0.13263">
        <ele>870</ele>
        <time>2017-08-13T10:25:46Z</time>
      </trkpt>
      <trkpt lat="42.50897" lon="-0.13265">
        <ele>869.9</ele>
        <time>2017-08-13T10:25:47Z</time>
      </trkpt>
      <trkpt lat="42.50892" lon="-0.13266">
        <ele>869.8</ele>
        <time>2017-08-13T10:25:48Z</time>
      </trkpt>
      <trkpt lat="42.50887" lon="-0.13265">
        <ele>869.7</ele>
        <time>2017-08-13T10:25:49Z</time>
      </trkpt>
      <trkpt lat="42.50884" lon="-0.13262">
        <ele>869.6</ele>
        <time>2017-08-13T10:25:50Z</time>
      </trkpt>
      <trkpt lat="42.50881" lon="-0.13257">
        <ele>869.5</ele>
        <time>2017-08-13T10:25:51Z</time>
      </trkpt>
      <trkpt lat="42.50879" lon="-0.13252">
        <ele>869.5</ele>
        <time>2017-08-13T10:25:52Z</time>
      </trkpt>
      <trkpt lat="42.50878" lon="-0.13246">
        <ele>869.4</ele>
        <time>2017-08-13T10:25:53Z</time>
      </trkpt>
      <trkpt lat="42.50878" lon="-0.13239">
        <ele>869.4</ele>
        <time>2017-08-13T10:25:54Z</time>
      </trkpt>
      <trkpt lat="42.50878" lon="-0.13233">
        <ele>869.3</ele>
        <time>2017-08-13T10:25:55Z</time>
      </trkpt>
      <trkpt lat="42.50878" lon="-0.13226">
        <ele>869.2</ele>
        <time>2017-08-13T10:25:56Z</time>
      </trkpt>
      <trkpt lat="42.50879" lon="-0.13219">
        <ele>869.1</ele>
        <time>2017-08-13T10:25:57Z</time>
      </trkpt>
      <trkpt lat="42.50879" lon="-0.13213">
        <ele>869</ele>
        <time>2017-08-13T10:25:58Z</time>
      </trkpt>
      <trkpt lat="42.50879" lon="-0.13207">
        <ele>868.8</ele>
        <time>2017-08-13T10:25:59Z</time>
      </trkpt>
      <trkpt lat="42.50879" lon="-0.13201">
        <ele>868.5</ele>
        <time>2017-08-13T10:26:00Z</time>
      </trkpt>
      <trkpt lat="42.50879" lon="-0.13196">
        <ele>868.1</ele>
        <time>2017-08-13T10:26:01Z</time>
      </trkpt>
      <trkpt lat="42.50879" lon="-0.13191">
        <ele>867.8</ele>
        <time>2017-08-13T10:26:02Z</time>
      </trkpt>
      <trkpt lat="42.50878" lon="-0.13186">
        <ele>867.6</ele>
        <time>2017-08-13T10:26:03Z</time>
      </trkpt>
      <trkpt lat="42.50877" lon="-0.13181">
        <ele>867.4</ele>
        <time>2017-08-13T10:26:04Z</time>
      </trkpt>
      <trkpt lat="42.50876" lon="-0.13176">
        <ele>867.3</ele>
        <time>2017-08-13T10:26:05Z</time>
      </trkpt>
      <trkpt lat="42.50875" lon="-0.13171">
        <ele>867.2</ele>
        <time>2017-08-13T10:26:06Z</time>
      </trkpt>
      <trkpt lat="42.50874" lon="-0.13166">
        <ele>867</ele>
        <time>2017-08-13T10:26:07Z</time>
      </trkpt>
      <trkpt lat="42.50873" lon="-0.13161">
        <ele>866.9</ele>
        <time>2017-08-13T10:26:08Z</time>
      </trkpt>
      <trkpt lat="42.50872" lon="-0.13156">
        <ele>866.6</ele>
        <time>2017-08-13T10:26:09Z</time>
      </trkpt>
      <trkpt lat="42.50872" lon="-0.13151">
        <ele>866.2</ele>
        <time>2017-08-13T10:26:10Z</time>
      </trkpt>
      <trkpt lat="42.50872" lon="-0.13145">
        <ele>865.6</ele>
        <time>2017-08-13T10:26:11Z</time>
      </trkpt>
      <trkpt lat="42.50872" lon="-0.1314">
        <ele>865.2</ele>
        <time>2017-08-13T10:26:12Z</time>
      </trkpt>
      <trkpt lat="42.50872" lon="-0.13134">
        <ele>864.9</ele>
        <time>2017-08-13T10:26:13Z</time>
      </trkpt>
      <trkpt lat="42.50871" lon="-0.13128">
        <ele>864.7</ele>
        <time>2017-08-13T10:26:14Z</time>
      </trkpt>
      <trkpt lat="42.50871" lon="-0.13122">
        <ele>864.3</ele>
        <time>2017-08-13T10:26:15Z</time>
      </trkpt>
      <trkpt lat="42.50869" lon="-0.13116">
        <ele>863.8</ele>
        <time>2017-08-13T10:26:16Z</time>
      </trkpt>
      <trkpt lat="42.50868" lon="-0.1311">
        <ele>863.4</ele>
        <time>2017-08-13T10:26:17Z</time>
      </trkpt>
      <trkpt lat="42.50865" lon="-0.13104">
        <ele>863.1</ele>
        <time>2017-08-13T10:26:18Z</time>
      </trkpt>
      <trkpt lat="42.50862" lon="-0.13098">
        <ele>862.9</ele>
        <time>2017-08-13T10:26:19Z</time>
      </trkpt>
      <trkpt lat="42.50859" lon="-0.13092">
        <ele>862.4</ele>
        <time>2017-08-13T10:26:20Z</time>
      </trkpt>
      <trkpt lat="42.50856" lon="-0.13087">
        <ele>861.9</ele>
        <time>2017-08-13T10:26:21Z</time>
      </trkpt>
      <trkpt lat="42.50852" lon="-0.13082">
        <ele>861.4</ele>
        <time>2017-08-13T10:26:22Z</time>
      </trkpt>
      <trkpt lat="42.50849" lon="-0.13079">
        <ele>860.9</ele>
        <time>2017-08-13T10:26:23Z</time>
      </trkpt>
      <trkpt lat="42.50847" lon="-0.13076">
        <ele>860.8</ele>
        <time>2017-08-13T10:26:24Z</time>
      </trkpt>
      <trkpt lat="42.50843" lon="-0.13072">
        <ele>860.5</ele>
        <time>2017-08-13T10:26:26Z</time>
      </trkpt>
      <trkpt lat="42.50838" lon="-0.13069">
        <ele>860.2</ele>
        <time>2017-08-13T10:26:28Z</time>
      </trkpt>
      <trkpt lat="42.50835" lon="-0.13068">
        <ele>859.9</ele>
        <time>2017-08-13T10:26:29Z</time>
      </trkpt>
      <trkpt lat="42.50832" lon="-0.13066">
        <ele>859.4</ele>
        <time>2017-08-13T10:26:30Z</time>
      </trkpt>
      <trkpt lat="42.50828" lon="-0.13064">
        <ele>858.9</ele>
        <time>2017-08-13T10:26:31Z</time>
      </trkpt>
      <trkpt lat="42.50824" lon="-0.13061">
        <ele>858.5</ele>
        <time>2017-08-13T10:26:32Z</time>
      </trkpt>
      <trkpt lat="42.5082" lon="-0.13058">
        <ele>858.2</ele>
        <time>2017-08-13T10:26:33Z</time>
      </trkpt>
      <trkpt lat="42.50816" lon="-0.13053">
        <ele>857.6</ele>
        <time>2017-08-13T10:26:34Z</time>
      </trkpt>
      <trkpt lat="42.50812" lon="-0.13049">
        <ele>857</ele>
        <time>2017-08-13T10:26:35Z</time>
      </trkpt>
      <trkpt lat="42.50807" lon="-0.13043">
        <ele>856.4</ele>
        <time>2017-08-13T10:26:36Z</time>
      </trkpt>
      <trkpt lat="42.50801" lon="-0.13038">
        <ele>855.9</ele>
        <time>2017-08-13T10:26:37Z</time>
      </trkpt>
      <trkpt lat="42.50796" lon="-0.13032">
        <ele>855.6</ele>
        <time>2017-08-13T10:26:38Z</time>
      </trkpt>
      <trkpt lat="42.50791" lon="-0.13026">
        <ele>855.2</ele>
        <time>2017-08-13T10:26:39Z</time>
      </trkpt>
      <trkpt lat="42.50788" lon="-0.13019">
        <ele>854.6</ele>
        <time>2017-08-13T10:26:40Z</time>
      </trkpt>
      <trkpt lat="42.50783" lon="-0.13015">
        <ele>853.9</ele>
        <time>2017-08-13T10:26:41Z</time>
      </trkpt>
      <trkpt lat="42.50777" lon="-0.13009">
        <ele>853.5</ele>
        <time>2017-08-13T10:26:42Z</time>
      </trkpt>
      <trkpt lat="42.50771" lon="-0.13003">
        <ele>852.8</ele>
        <time>2017-08-13T10:26:43Z</time>
      </trkpt>
      <trkpt lat="42.50767" lon="-0.12997">
        <ele>852</ele>
        <time>2017-08-13T10:26:44Z</time>
      </trkpt>
      <trkpt lat="42.50761" lon="-0.12992">
        <ele>851.6</ele>
        <time>2017-08-13T10:26:45Z</time>
      </trkpt>
      <trkpt lat="42.50757" lon="-0.12988">
        <ele>851.4</ele>
        <time>2017-08-13T10:26:46Z</time>
      </trkpt>
      <trkpt lat="42.50753" lon="-0.12984">
        <ele>851.2</ele>
        <time>2017-08-13T10:26:47Z</time>
      </trkpt>
      <trkpt lat="42.50749" lon="-0.1298">
        <ele>851.1</ele>
        <time>2017-08-13T10:26:48Z</time>
      </trkpt>
      <trkpt lat="42.50744" lon="-0.12977">
        <ele>851</ele>
        <time>2017-08-13T10:26:49Z</time>
      </trkpt>
      <trkpt lat="42.50739" lon="-0.12975">
        <ele>850.8</ele>
        <time>2017-08-13T10:26:50Z</time>
      </trkpt>
      <trkpt lat="42.50733" lon="-0.12973">
        <ele>850.4</ele>
        <time>2017-08-13T10:26:51Z</time>
      </trkpt>
      <trkpt lat="42.50729" lon="-0.1297">
        <ele>850.1</ele>
        <time>2017-08-13T10:26:52Z</time>
      </trkpt>
      <trkpt lat="42.50724" lon="-0.12968">
        <ele>849.7</ele>
        <time>2017-08-13T10:26:53Z</time>
      </trkpt>
      <trkpt lat="42.5072" lon="-0.12964">
        <ele>849.4</ele>
        <time>2017-08-13T10:26:54Z</time>
      </trkpt>
      <trkpt lat="42.50717" lon="-0.1296">
        <ele>849.1</ele>
        <time>2017-08-13T10:26:55Z</time>
      </trkpt>
      <trkpt lat="42.50714" lon="-0.12955">
        <ele>849</ele>
        <time>2017-08-13T10:26:56Z</time>
      </trkpt>
      <trkpt lat="42.50711" lon="-0.12949">
        <ele>848.9</ele>
        <time>2017-08-13T10:26:57Z</time>
      </trkpt>
      <trkpt lat="42.50709" lon="-0.12943">
        <ele>848.7</ele>
        <time>2017-08-13T10:26:58Z</time>
      </trkpt>
      <trkpt lat="42.50705" lon="-0.12938">
        <ele>848.6</ele>
        <time>2017-08-13T10:26:59Z</time>
      </trkpt>
      <trkpt lat="42.50703" lon="-0.12932">
        <ele>848.4</ele>
        <time>2017-08-13T10:27:00Z</time>
      </trkpt>
      <trkpt lat="42.507" lon="-0.12926">
        <ele>848.3</ele>
        <time>2017-08-13T10:27:01Z</time>
      </trkpt>
      <trkpt lat="42.50697" lon="-0.1292">
        <ele>848</ele>
        <time>2017-08-13T10:27:02Z</time>
      </trkpt>
      <trkpt lat="42.50695" lon="-0.12916">
        <ele>847.7</ele>
        <time>2017-08-13T10:27:03Z</time>
      </trkpt>
      <trkpt lat="42.50692" lon="-0.12913">
        <ele>847.5</ele>
        <time>2017-08-13T10:27:04Z</time>
      </trkpt>
      <trkpt lat="42.50689" lon="-0.12911">
        <ele>847.3</ele>
        <time>2017-08-13T10:27:06Z</time>
      </trkpt>
      <trkpt lat="42.50693" lon="-0.12915">
        <ele>847.6</ele>
        <time>2017-08-13T10:27:13Z</time>
      </trkpt>
      <trkpt lat="42.50694" lon="-0.12919">
        <ele>847.8</ele>
        <time>2017-08-13T10:27:14Z</time>
      </trkpt>
      <trkpt lat="42.50695" lon="-0.12922">
        <ele>848</ele>
        <time>2017-08-13T10:27:15Z</time>
      </trkpt>
      <trkpt lat="42.50696" lon="-0.12926">
        <ele>848.2</ele>
        <time>2017-08-13T10:27:16Z</time>
      </trkpt>
      <trkpt lat="42.50698" lon="-0.12929">
        <ele>848.3</ele>
        <time>2017-08-13T10:27:17Z</time>
      </trkpt>
      <trkpt lat="42.507" lon="-0.12933">
        <ele>848.4</ele>
        <time>2017-08-13T10:27:18Z</time>
      </trkpt>
      <trkpt lat="42.50701" lon="-0.12936">
        <ele>848.5</ele>
        <time>2017-08-13T10:27:19Z</time>
      </trkpt>
      <trkpt lat="42.50703" lon="-0.1294">
        <ele>848.6</ele>
        <time>2017-08-13T10:27:20Z</time>
      </trkpt>
      <trkpt lat="42.50705" lon="-0.12944">
        <ele>848.7</ele>
        <time>2017-08-13T10:27:21Z</time>
      </trkpt>
      <trkpt lat="42.50706" lon="-0.12948">
        <ele>848.8</ele>
        <time>2017-08-13T10:27:22Z</time>
      </trkpt>
      <trkpt lat="42.50708" lon="-0.12952">
        <ele>848.8</ele>
        <time>2017-08-13T10:27:23Z</time>
      </trkpt>
      <trkpt lat="42.50709" lon="-0.12956">
        <ele>848.9</ele>
        <time>2017-08-13T10:27:24Z</time>
      </trkpt>
      <trkpt lat="42.50711" lon="-0.1296">
        <ele>849</ele>
        <time>2017-08-13T10:27:25Z</time>
      </trkpt>
      <trkpt lat="42.50714" lon="-0.12963">
        <ele>849.1</ele>
        <time>2017-08-13T10:27:26Z</time>
      </trkpt>
      <trkpt lat="42.50716" lon="-0.12966">
        <ele>849.3</ele>
        <time>2017-08-13T10:27:27Z</time>
      </trkpt>
      <trkpt lat="42.50719" lon="-0.12968">
        <ele>849.5</ele>
        <time>2017-08-13T10:27:28Z</time>
      </trkpt>
      <trkpt lat="42.50722" lon="-0.1297">
        <ele>849.7</ele>
        <time>2017-08-13T10:27:29Z</time>
      </trkpt>
      <trkpt lat="42.50725" lon="-0.12971">
        <ele>850</ele>
        <time>2017-08-13T10:27:30Z</time>
      </trkpt>
      <trkpt lat="42.50728" lon="-0.12973">
        <ele>850.2</ele>
        <time>2017-08-13T10:27:31Z</time>
      </trkpt>
      <trkpt lat="42.50731" lon="-0.12974">
        <ele>850.5</ele>
        <time>2017-08-13T10:27:32Z</time>
      </trkpt>
      <trkpt lat="42.50735" lon="-0.12975">
        <ele>850.7</ele>
        <time>2017-08-13T10:27:33Z</time>
      </trkpt>
      <trkpt lat="42.50738" lon="-0.12976">
        <ele>850.8</ele>
        <time>2017-08-13T10:27:34Z</time>
      </trkpt>
      <trkpt lat="42.50742" lon="-0.12977">
        <ele>850.9</ele>
        <time>2017-08-13T10:27:35Z</time>
      </trkpt>
      <trkpt lat="42.50745" lon="-0.12979">
        <ele>851</ele>
        <time>2017-08-13T10:27:36Z</time>
      </trkpt>
      <trkpt lat="42.50748" lon="-0.12981">
        <ele>851.1</ele>
        <time>2017-08-13T10:27:37Z</time>
      </trkpt>
      <trkpt lat="42.50751" lon="-0.12983">
        <ele>851.2</ele>
        <time>2017-08-13T10:27:38Z</time>
      </trkpt>
      <trkpt lat="42.50754" lon="-0.12985">
        <ele>851.3</ele>
        <time>2017-08-13T10:27:39Z</time>
      </trkpt>
      <trkpt lat="42.50756" lon="-0.12988">
        <ele>851.4</ele>
        <time>2017-08-13T10:27:40Z</time>
      </trkpt>
      <trkpt lat="42.50759" lon="-0.1299">
        <ele>851.6</ele>
        <time>2017-08-13T10:27:41Z</time>
      </trkpt>
      <trkpt lat="42.50762" lon="-0.12995">
        <ele>851.8</ele>
        <time>2017-08-13T10:27:43Z</time>
      </trkpt>
      <trkpt lat="42.50764" lon="-0.12998">
        <ele>852</ele>
        <time>2017-08-13T10:27:44Z</time>
      </trkpt>
      <trkpt lat="42.50766" lon="-0.13001">
        <ele>852.3</ele>
        <time>2017-08-13T10:27:45Z</time>
      </trkpt>
      <trkpt lat="42.50769" lon="-0.13004">
        <ele>852.7</ele>
        <time>2017-08-13T10:27:46Z</time>
      </trkpt>
      <trkpt lat="42.50771" lon="-0.13006">
        <ele>853</ele>
        <time>2017-08-13T10:27:47Z</time>
      </trkpt>
      <trkpt lat="42.50773" lon="-0.13009">
        <ele>853.3</ele>
        <time>2017-08-13T10:27:48Z</time>
      </trkpt>
      <trkpt lat="42.50777" lon="-0.13013">
        <ele>853.6</ele>
        <time>2017-08-13T10:27:50Z</time>
      </trkpt>
      <trkpt lat="42.50781" lon="-0.13017">
        <ele>854</ele>
        <time>2017-08-13T10:27:52Z</time>
      </trkpt>
      <trkpt lat="42.50783" lon="-0.1302">
        <ele>854.2</ele>
        <time>2017-08-13T10:27:53Z</time>
      </trkpt>
      <trkpt lat="42.50786" lon="-0.13022">
        <ele>854.5</ele>
        <time>2017-08-13T10:27:54Z</time>
      </trkpt>
      <trkpt lat="42.50788" lon="-0.13024">
        <ele>854.9</ele>
        <time>2017-08-13T10:27:55Z</time>
      </trkpt>
      <trkpt lat="42.5079" lon="-0.13027">
        <ele>855.2</ele>
        <time>2017-08-13T10:27:56Z</time>
      </trkpt>
      <trkpt lat="42.50792" lon="-0.13029">
        <ele>855.4</ele>
        <time>2017-08-13T10:27:57Z</time>
      </trkpt>
      <trkpt lat="42.50794" lon="-0.13032">
        <ele>855.5</ele>
        <time>2017-08-13T10:27:58Z</time>
      </trkpt>
      <trkpt lat="42.50796" lon="-0.13035">
        <ele>855.7</ele>
        <time>2017-08-13T10:27:59Z</time>
      </trkpt>
      <trkpt lat="42.50799" lon="-0.13038">
        <ele>855.8</ele>
        <time>2017-08-13T10:28:00Z</time>
      </trkpt>
      <trkpt lat="42.50801" lon="-0.1304">
        <ele>856</ele>
        <time>2017-08-13T10:28:01Z</time>
      </trkpt>
      <trkpt lat="42.50803" lon="-0.13043">
        <ele>856.2</ele>
        <time>2017-08-13T10:28:02Z</time>
      </trkpt>
      <trkpt lat="42.50805" lon="-0.13046">
        <ele>856.4</ele>
        <time>2017-08-13T10:28:03Z</time>
      </trkpt>
      <trkpt lat="42.50807" lon="-0.13048">
        <ele>856.6</ele>
        <time>2017-08-13T10:28:04Z</time>
      </trkpt>
      <trkpt lat="42.5081" lon="-0.1305">
        <ele>856.9</ele>
        <time>2017-08-13T10:28:05Z</time>
      </trkpt>
      <trkpt lat="42.50812" lon="-0.13052">
        <ele>857.2</ele>
        <time>2017-08-13T10:28:06Z</time>
      </trkpt>
      <trkpt lat="42.50817" lon="-0.13056">
        <ele>857.8</ele>
        <time>2017-08-13T10:28:08Z</time>
      </trkpt>
      <trkpt lat="42.50819" lon="-0.13058">
        <ele>858.1</ele>
        <time>2017-08-13T10:28:09Z</time>
      </trkpt>
      <trkpt lat="42.50824" lon="-0.13061">
        <ele>858.5</ele>
        <time>2017-08-13T10:28:11Z</time>
      </trkpt>
      <trkpt lat="42.50828" lon="-0.13064">
        <ele>858.9</ele>
        <time>2017-08-13T10:28:13Z</time>
      </trkpt>
      <trkpt lat="42.50833" lon="-0.13067">
        <ele>859.5</ele>
        <time>2017-08-13T10:28:15Z</time>
      </trkpt>
      <trkpt lat="42.50835" lon="-0.13069">
        <ele>859.9</ele>
        <time>2017-08-13T10:28:16Z</time>
      </trkpt>
      <trkpt lat="42.50838" lon="-0.13071">
        <ele>860.2</ele>
        <time>2017-08-13T10:28:17Z</time>
      </trkpt>
      <trkpt lat="42.5084" lon="-0.13072">
        <ele>860.4</ele>
        <time>2017-08-13T10:28:18Z</time>
      </trkpt>
      <trkpt lat="42.50845" lon="-0.13076">
        <ele>860.7</ele>
        <time>2017-08-13T10:28:20Z</time>
      </trkpt>
      <trkpt lat="42.50847" lon="-0.13079">
        <ele>860.8</ele>
        <time>2017-08-13T10:28:21Z</time>
      </trkpt>
      <trkpt lat="42.5085" lon="-0.13081">
        <ele>861</ele>
        <time>2017-08-13T10:28:22Z</time>
      </trkpt>
      <trkpt lat="42.50852" lon="-0.13083">
        <ele>861.4</ele>
        <time>2017-08-13T10:28:23Z</time>
      </trkpt>
      <trkpt lat="42.50855" lon="-0.13085">
        <ele>861.7</ele>
        <time>2017-08-13T10:28:24Z</time>
      </trkpt>
      <trkpt lat="42.50857" lon="-0.13087">
        <ele>862</ele>
        <time>2017-08-13T10:28:25Z</time>
      </trkpt>
      <trkpt lat="42.50859" lon="-0.13089">
        <ele>862.3</ele>
        <time>2017-08-13T10:28:26Z</time>
      </trkpt>
      <trkpt lat="42.50861" lon="-0.13093">
        <ele>862.6</ele>
        <time>2017-08-13T10:28:27Z</time>
      </trkpt>
      <trkpt lat="42.50863" lon="-0.13096">
        <ele>862.8</ele>
        <time>2017-08-13T10:28:28Z</time>
      </trkpt>
      <trkpt lat="42.50865" lon="-0.131">
        <ele>863</ele>
        <time>2017-08-13T10:28:29Z</time>
      </trkpt>
      <trkpt lat="42.50866" lon="-0.13103">
        <ele>863.1</ele>
        <time>2017-08-13T10:28:30Z</time>
      </trkpt>
      <trkpt lat="42.50868" lon="-0.13107">
        <ele>863.2</ele>
        <time>2017-08-13T10:28:31Z</time>
      </trkpt>
      <trkpt lat="42.50869" lon="-0.1311">
        <ele>863.4</ele>
        <time>2017-08-13T10:28:32Z</time>
      </trkpt>
      <trkpt lat="42.50869" lon="-0.13114">
        <ele>863.6</ele>
        <time>2017-08-13T10:28:33Z</time>
      </trkpt>
      <trkpt lat="42.5087" lon="-0.13118">
        <ele>863.9</ele>
        <time>2017-08-13T10:28:34Z</time>
      </trkpt>
      <trkpt lat="42.50871" lon="-0.13125">
        <ele>864.5</ele>
        <time>2017-08-13T10:28:36Z</time>
      </trkpt>
      <trkpt lat="42.50871" lon="-0.13129">
        <ele>864.7</ele>
        <time>2017-08-13T10:28:37Z</time>
      </trkpt>
      <trkpt lat="42.50871" lon="-0.13132">
        <ele>864.9</ele>
        <time>2017-08-13T10:28:38Z</time>
      </trkpt>
      <trkpt lat="42.50872" lon="-0.13136">
        <ele>865</ele>
        <time>2017-08-13T10:28:39Z</time>
      </trkpt>
      <trkpt lat="42.50872" lon="-0.13143">
        <ele>865.5</ele>
        <time>2017-08-13T10:28:41Z</time>
      </trkpt>
      <trkpt lat="42.50872" lon="-0.13147">
        <ele>865.8</ele>
        <time>2017-08-13T10:28:42Z</time>
      </trkpt>
      <trkpt lat="42.50872" lon="-0.13154">
        <ele>866.4</ele>
        <time>2017-08-13T10:28:44Z</time>
      </trkpt>
      <trkpt lat="42.50872" lon="-0.13158">
        <ele>866.7</ele>
        <time>2017-08-13T10:28:45Z</time>
      </trkpt>
      <trkpt lat="42.50873" lon="-0.13165">
        <ele>867</ele>
        <time>2017-08-13T10:28:47Z</time>
      </trkpt>
      <trkpt lat="42.50873" lon="-0.13169">
        <ele>867.1</ele>
        <time>2017-08-13T10:28:48Z</time>
      </trkpt>
      <trkpt lat="42.50874" lon="-0.13172">
        <ele>867.2</ele>
        <time>2017-08-13T10:28:49Z</time>
      </trkpt>
      <trkpt lat="42.50875" lon="-0.13176">
        <ele>867.3</ele>
        <time>2017-08-13T10:28:50Z</time>
      </trkpt>
      <trkpt lat="42.50876" lon="-0.1318">
        <ele>867.4</ele>
        <time>2017-08-13T10:28:51Z</time>
      </trkpt>
      <trkpt lat="42.50877" lon="-0.13184">
        <ele>867.5</ele>
        <time>2017-08-13T10:28:52Z</time>
      </trkpt>
      <trkpt lat="42.50877" lon="-0.13188">
        <ele>867.6</ele>
        <time>2017-08-13T10:28:53Z</time>
      </trkpt>
      <trkpt lat="42.50878" lon="-0.13192">
        <ele>867.9</ele>
        <time>2017-08-13T10:28:54Z</time>
      </trkpt>
      <trkpt lat="42.50879" lon="-0.13197">
        <ele>868.1</ele>
        <time>2017-08-13T10:28:55Z</time>
      </trkpt>
      <trkpt lat="42.5088" lon="-0.13201">
        <ele>868.4</ele>
        <time>2017-08-13T10:28:56Z</time>
      </trkpt>
      <trkpt lat="42.5088" lon="-0.13205">
        <ele>868.7</ele>
        <time>2017-08-13T10:28:57Z</time>
      </trkpt>
      <trkpt lat="42.50881" lon="-0.1321">
        <ele>868.9</ele>
        <time>2017-08-13T10:28:58Z</time>
      </trkpt>
      <trkpt lat="42.50881" lon="-0.13214">
        <ele>869</ele>
        <time>2017-08-13T10:28:59Z</time>
      </trkpt>
      <trkpt lat="42.50881" lon="-0.13219">
        <ele>869.1</ele>
        <time>2017-08-13T10:29:00Z</time>
      </trkpt>
      <trkpt lat="42.50881" lon="-0.13223">
        <ele>869.1</ele>
        <time>2017-08-13T10:29:01Z</time>
      </trkpt>
      <trkpt lat="42.50881" lon="-0.13227">
        <ele>869.2</ele>
        <time>2017-08-13T10:29:02Z</time>
      </trkpt>
      <trkpt lat="42.50881" lon="-0.13232">
        <ele>869.3</ele>
        <time>2017-08-13T10:29:03Z</time>
      </trkpt>
      <trkpt lat="42.50881" lon="-0.13236">
        <ele>869.3</ele>
        <time>2017-08-13T10:29:04Z</time>
      </trkpt>
      <trkpt lat="42.50881" lon="-0.13241">
        <ele>869.4</ele>
        <time>2017-08-13T10:29:05Z</time>
      </trkpt>
      <trkpt lat="42.50881" lon="-0.13245">
        <ele>869.4</ele>
        <time>2017-08-13T10:29:06Z</time>
      </trkpt>
      <trkpt lat="42.50882" lon="-0.13249">
        <ele>869.4</ele>
        <time>2017-08-13T10:29:07Z</time>
      </trkpt>
      <trkpt lat="42.50883" lon="-0.13253">
        <ele>869.5</ele>
        <time>2017-08-13T10:29:08Z</time>
      </trkpt>
      <trkpt lat="42.50884" lon="-0.13257">
        <ele>869.5</ele>
        <time>2017-08-13T10:29:09Z</time>
      </trkpt>
      <trkpt lat="42.50886" lon="-0.13261">
        <ele>869.6</ele>
        <time>2017-08-13T10:29:10Z</time>
      </trkpt>
      <trkpt lat="42.50888" lon="-0.13265">
        <ele>869.6</ele>
        <time>2017-08-13T10:29:11Z</time>
      </trkpt>
      <trkpt lat="42.50891" lon="-0.13268">
        <ele>869.7</ele>
        <time>2017-08-13T10:29:12Z</time>
      </trkpt>
      <trkpt lat="42.50895" lon="-0.13269">
        <ele>869.8</ele>
        <time>2017-08-13T10:29:13Z</time>
      </trkpt>
      <trkpt lat="42.50899" lon="-0.13268">
        <ele>869.9</ele>
        <time>2017-08-13T10:29:14Z</time>
      </trkpt>
      <trkpt lat="42.50903" lon="-0.13266">
        <ele>869.9</ele>
        <time>2017-08-13T10:29:15Z</time>
      </trkpt>
      <trkpt lat="42.50905" lon="-0.13263">
        <ele>870.1</ele>
        <time>2017-08-13T10:29:16Z</time>
      </trkpt>
      <trkpt lat="42.50907" lon="-0.13259">
        <ele>870.3</ele>
        <time>2017-08-13T10:29:17Z</time>
      </trkpt>
      <trkpt lat="42.50909" lon="-0.13255">
        <ele>870.5</ele>
        <time>2017-08-13T10:29:18Z</time>
      </trkpt>
      <trkpt lat="42.5091" lon="-0.13251">
        <ele>870.8</ele>
        <time>2017-08-13T10:29:19Z</time>
      </trkpt>
      <trkpt lat="42.50911" lon="-0.13247">
        <ele>871</ele>
        <time>2017-08-13T10:29:20Z</time>
      </trkpt>
      <trkpt lat="42.50913" lon="-0.13243">
        <ele>871.3</ele>
        <time>2017-08-13T10:29:21Z</time>
      </trkpt>
      <trkpt lat="42.50915" lon="-0.1324">
        <ele>871.5</ele>
        <time>2017-08-13T10:29:22Z</time>
      </trkpt>
      <trkpt lat="42.50918" lon="-0.13237">
        <ele>871.5</ele>
        <time>2017-08-13T10:29:23Z</time>
      </trkpt>
      <trkpt lat="42.5092" lon="-0.13235">
        <ele>871.6</ele>
        <time>2017-08-13T10:29:24Z</time>
      </trkpt>
      <trkpt lat="42.50923" lon="-0.13232">
        <ele>871.7</ele>
        <time>2017-08-13T10:29:25Z</time>
      </trkpt>
      <trkpt lat="42.50925" lon="-0.1323">
        <ele>871.7</ele>
        <time>2017-08-13T10:29:26Z</time>
      </trkpt>
      <trkpt lat="42.50928" lon="-0.13228">
        <ele>871.8</ele>
        <time>2017-08-13T10:29:27Z</time>
      </trkpt>
      <trkpt lat="42.50931" lon="-0.13226">
        <ele>871.9</ele>
        <time>2017-08-13T10:29:28Z</time>
      </trkpt>
      <trkpt lat="42.50934" lon="-0.13224">
        <ele>871.9</ele>
        <time>2017-08-13T10:29:29Z</time>
      </trkpt>
      <trkpt lat="42.50937" lon="-0.13222">
        <ele>872</ele>
        <time>2017-08-13T10:29:30Z</time>
      </trkpt>
      <trkpt lat="42.5094" lon="-0.13221">
        <ele>872.5</ele>
        <time>2017-08-13T10:29:31Z</time>
      </trkpt>
      <trkpt lat="42.50944" lon="-0.1322">
        <ele>872.9</ele>
        <time>2017-08-13T10:29:32Z</time>
      </trkpt>
      <trkpt lat="42.50947" lon="-0.13219">
        <ele>873.7</ele>
        <time>2017-08-13T10:29:33Z</time>
      </trkpt>
      <trkpt lat="42.50949" lon="-0.13218">
        <ele>874.4</ele>
        <time>2017-08-13T10:29:34Z</time>
      </trkpt>
      <trkpt lat="42.50952" lon="-0.13217">
        <ele>874.8</ele>
        <time>2017-08-13T10:29:35Z</time>
      </trkpt>
      <trkpt lat="42.50957" lon="-0.13215">
        <ele>875.2</ele>
        <time>2017-08-13T10:29:37Z</time>
      </trkpt>
      <trkpt lat="42.5096" lon="-0.13213">
        <ele>875.4</ele>
        <time>2017-08-13T10:29:38Z</time>
      </trkpt>
      <trkpt lat="42.50962" lon="-0.13212">
        <ele>875.5</ele>
        <time>2017-08-13T10:29:39Z</time>
      </trkpt>
      <trkpt lat="42.50967" lon="-0.13209">
        <ele>875.8</ele>
        <time>2017-08-13T10:29:41Z</time>
      </trkpt>
      <trkpt lat="42.50971" lon="-0.13205">
        <ele>875.6</ele>
        <time>2017-08-13T10:29:43Z</time>
      </trkpt>
      <trkpt lat="42.50975" lon="-0.13201">
        <ele>875.7</ele>
        <time>2017-08-13T10:29:45Z</time>
      </trkpt>
      <trkpt lat="42.50979" lon="-0.13196">
        <ele>876.3</ele>
        <time>2017-08-13T10:29:47Z</time>
      </trkpt>
      <trkpt lat="42.50983" lon="-0.13193">
        <ele>876.4</ele>
        <time>2017-08-13T10:29:49Z</time>
      </trkpt>
      <trkpt lat="42.50988" lon="-0.13191">
        <ele>876.5</ele>
        <time>2017-08-13T10:29:51Z</time>
      </trkpt>
      <trkpt lat="42.50991" lon="-0.1319">
        <ele>877.3</ele>
        <time>2017-08-13T10:29:52Z</time>
      </trkpt>
      <trkpt lat="42.50994" lon="-0.13191">
        <ele>878.1</ele>
        <time>2017-08-13T10:29:53Z</time>
      </trkpt>
      <trkpt lat="42.50997" lon="-0.13192">
        <ele>878.8</ele>
        <time>2017-08-13T10:29:54Z</time>
      </trkpt>
      <trkpt lat="42.50999" lon="-0.13193">
        <ele>879.5</ele>
        <time>2017-08-13T10:29:55Z</time>
      </trkpt>
      <trkpt lat="42.51004" lon="-0.13196">
        <ele>880.6</ele>
        <time>2017-08-13T10:29:57Z</time>
      </trkpt>
      <trkpt lat="42.51007" lon="-0.13198">
        <ele>881.2</ele>
        <time>2017-08-13T10:29:58Z</time>
      </trkpt>
      <trkpt lat="42.5101" lon="-0.13199">
        <ele>881.7</ele>
        <time>2017-08-13T10:29:59Z</time>
      </trkpt>
      <trkpt lat="42.51012" lon="-0.13201">
        <ele>882.2</ele>
        <time>2017-08-13T10:30:00Z</time>
      </trkpt>
      <trkpt lat="42.51015" lon="-0.13202">
        <ele>882.6</ele>
        <time>2017-08-13T10:30:01Z</time>
      </trkpt>
      <trkpt lat="42.51018" lon="-0.13203">
        <ele>882.5</ele>
        <time>2017-08-13T10:30:02Z</time>
      </trkpt>
      <trkpt lat="42.51021" lon="-0.13205">
        <ele>882.1</ele>
        <time>2017-08-13T10:30:03Z</time>
      </trkpt>
      <trkpt lat="42.51023" lon="-0.13207">
        <ele>881.7</ele>
        <time>2017-08-13T10:30:04Z</time>
      </trkpt>
      <trkpt lat="42.51026" lon="-0.13209">
        <ele>882</ele>
        <time>2017-08-13T10:30:05Z</time>
      </trkpt>
      <trkpt lat="42.51028" lon="-0.13211">
        <ele>882.3</ele>
        <time>2017-08-13T10:30:06Z</time>
      </trkpt>
      <trkpt lat="42.51031" lon="-0.13213">
        <ele>882.5</ele>
        <time>2017-08-13T10:30:07Z</time>
      </trkpt>
      <trkpt lat="42.51036" lon="-0.13215">
        <ele>882.4</ele>
        <time>2017-08-13T10:30:09Z</time>
      </trkpt>
      <trkpt lat="42.51041" lon="-0.13217">
        <ele>882.7</ele>
        <time>2017-08-13T10:30:11Z</time>
      </trkpt>
      <trkpt lat="42.51046" lon="-0.13218">
        <ele>882.9</ele>
        <time>2017-08-13T10:30:13Z</time>
      </trkpt>
      <trkpt lat="42.5105" lon="-0.1322">
        <ele>882.3</ele>
        <time>2017-08-13T10:30:15Z</time>
      </trkpt>
      <trkpt lat="42.51055" lon="-0.13222">
        <ele>882.6</ele>
        <time>2017-08-13T10:30:17Z</time>
      </trkpt>
      <trkpt lat="42.51059" lon="-0.13224">
        <ele>883.9</ele>
        <time>2017-08-13T10:30:19Z</time>
      </trkpt>
      <trkpt lat="42.51064" lon="-0.13226">
        <ele>884.6</ele>
        <time>2017-08-13T10:30:21Z</time>
      </trkpt>
      <trkpt lat="42.51069" lon="-0.13228">
        <ele>885.3</ele>
        <time>2017-08-13T10:30:23Z</time>
      </trkpt>
      <trkpt lat="42.51074" lon="-0.13229">
        <ele>887.5</ele>
        <time>2017-08-13T10:30:25Z</time>
      </trkpt>
      <trkpt lat="42.51079" lon="-0.13231">
        <ele>888.4</ele>
        <time>2017-08-13T10:30:27Z</time>
      </trkpt>
      <trkpt lat="42.51083" lon="-0.13232">
        <ele>888.7</ele>
        <time>2017-08-13T10:30:29Z</time>
      </trkpt>
      <trkpt lat="42.51087" lon="-0.13233">
        <ele>889.5</ele>
        <time>2017-08-13T10:30:31Z</time>
      </trkpt>
      <trkpt lat="42.51091" lon="-0.13234">
        <ele>890.4</ele>
        <time>2017-08-13T10:30:33Z</time>
      </trkpt>
      <trkpt lat="42.51095" lon="-0.13236">
        <ele>889.2</ele>
        <time>2017-08-13T10:30:35Z</time>
      </trkpt>
      <trkpt lat="42.51099" lon="-0.13237">
        <ele>887.7</ele>
        <time>2017-08-13T10:30:37Z</time>
      </trkpt>
      <trkpt lat="42.51102" lon="-0.13238">
        <ele>888.1</ele>
        <time>2017-08-13T10:30:39Z</time>
      </trkpt>
      <trkpt lat="42.51106" lon="-0.13239">
        <ele>887.5</ele>
        <time>2017-08-13T10:30:41Z</time>
      </trkpt>
      <trkpt lat="42.5111" lon="-0.13241">
        <ele>885.7</ele>
        <time>2017-08-13T10:30:43Z</time>
      </trkpt>
      <trkpt lat="42.51113" lon="-0.13243">
        <ele>886.7</ele>
        <time>2017-08-13T10:30:45Z</time>
      </trkpt>
      <trkpt lat="42.51116" lon="-0.13246">
        <ele>887.3</ele>
        <time>2017-08-13T10:30:47Z</time>
      </trkpt>
      <trkpt lat="42.51119" lon="-0.13249">
        <ele>886.3</ele>
        <time>2017-08-13T10:30:49Z</time>
      </trkpt>
      <trkpt lat="42.51121" lon="-0.13253">
        <ele>887.4</ele>
        <time>2017-08-13T10:30:51Z</time>
      </trkpt>
      <trkpt lat="42.51124" lon="-0.13257">
        <ele>890.1</ele>
        <time>2017-08-13T10:30:53Z</time>
      </trkpt>
      <trkpt lat="42.51126" lon="-0.13261">
        <ele>891.9</ele>
        <time>2017-08-13T10:30:55Z</time>
      </trkpt>
      <trkpt lat="42.51127" lon="-0.13266">
        <ele>892.7</ele>
        <time>2017-08-13T10:30:57Z</time>
      </trkpt>
      <trkpt lat="42.51128" lon="-0.1327">
        <ele>893.5</ele>
        <time>2017-08-13T10:30:59Z</time>
      </trkpt>
      <trkpt lat="42.51129" lon="-0.13275">
        <ele>894.3</ele>
        <time>2017-08-13T10:31:01Z</time>
      </trkpt>
      <trkpt lat="42.5113" lon="-0.13279">
        <ele>895</ele>
        <time>2017-08-13T10:31:03Z</time>
      </trkpt>
      <trkpt lat="42.51131" lon="-0.13283">
        <ele>895.7</ele>
        <time>2017-08-13T10:31:05Z</time>
      </trkpt>
      <trkpt lat="42.51132" lon="-0.13287">
        <ele>896.4</ele>
        <time>2017-08-13T10:31:07Z</time>
      </trkpt>
      <trkpt lat="42.51133" lon="-0.13291">
        <ele>897</ele>
        <time>2017-08-13T10:31:09Z</time>
      </trkpt>
      <trkpt lat="42.51134" lon="-0.13295">
        <ele>897.2</ele>
        <time>2017-08-13T10:31:11Z</time>
      </trkpt>
      <trkpt lat="42.51135" lon="-0.13299">
        <ele>897.3</ele>
        <time>2017-08-13T10:31:13Z</time>
      </trkpt>
      <trkpt lat="42.51136" lon="-0.13304">
        <ele>897.4</ele>
        <time>2017-08-13T10:31:16Z</time>
      </trkpt>
      <trkpt lat="42.51136" lon="-0.13308">
        <ele>897.3</ele>
        <time>2017-08-13T10:31:18Z</time>
      </trkpt>
      <trkpt lat="42.51137" lon="-0.13312">
        <ele>897.4</ele>
        <time>2017-08-13T10:31:20Z</time>
      </trkpt>
      <trkpt lat="42.51138" lon="-0.13316">
        <ele>899</ele>
        <time>2017-08-13T10:31:22Z</time>
      </trkpt>
      <trkpt lat="42.51138" lon="-0.1332">
        <ele>899.6</ele>
        <time>2017-08-13T10:31:24Z</time>
      </trkpt>
      <trkpt lat="42.51138" lon="-0.13325">
        <ele>899.7</ele>
        <time>2017-08-13T10:31:26Z</time>
      </trkpt>
      <trkpt lat="42.51138" lon="-0.1333">
        <ele>899.8</ele>
        <time>2017-08-13T10:31:28Z</time>
      </trkpt>
      <trkpt lat="42.51139" lon="-0.13334">
        <ele>900</ele>
        <time>2017-08-13T10:31:30Z</time>
      </trkpt>
      <trkpt lat="42.5114" lon="-0.13338">
        <ele>900.2</ele>
        <time>2017-08-13T10:31:32Z</time>
      </trkpt>
      <trkpt lat="42.51142" lon="-0.13342">
        <ele>900.5</ele>
        <time>2017-08-13T10:31:34Z</time>
      </trkpt>
      <trkpt lat="42.51144" lon="-0.13345">
        <ele>900.7</ele>
        <time>2017-08-13T10:31:36Z</time>
      </trkpt>
      <trkpt lat="42.51147" lon="-0.13349">
        <ele>901.5</ele>
        <time>2017-08-13T10:31:39Z</time>
      </trkpt>
      <trkpt lat="42.51149" lon="-0.13353">
        <ele>902.4</ele>
        <time>2017-08-13T10:31:41Z</time>
      </trkpt>
      <trkpt lat="42.5115" lon="-0.13358">
        <ele>903.8</ele>
        <time>2017-08-13T10:31:43Z</time>
      </trkpt>
      <trkpt lat="42.51148" lon="-0.13362">
        <ele>905</ele>
        <time>2017-08-13T10:31:45Z</time>
      </trkpt>
      <trkpt lat="42.51145" lon="-0.13363">
        <ele>905.4</ele>
        <time>2017-08-13T10:31:47Z</time>
      </trkpt>
      <trkpt lat="42.51141" lon="-0.13362">
        <ele>905.6</ele>
        <time>2017-08-13T10:31:49Z</time>
      </trkpt>
      <trkpt lat="42.51137" lon="-0.1336">
        <ele>905.7</ele>
        <time>2017-08-13T10:31:51Z</time>
      </trkpt>
      <trkpt lat="42.51133" lon="-0.13357">
        <ele>905.6</ele>
        <time>2017-08-13T10:31:53Z</time>
      </trkpt>
      <trkpt lat="42.5113" lon="-0.13355">
        <ele>905.4</ele>
        <time>2017-08-13T10:31:55Z</time>
      </trkpt>
      <trkpt lat="42.51126" lon="-0.13352">
        <ele>905.2</ele>
        <time>2017-08-13T10:31:57Z</time>
      </trkpt>
      <trkpt lat="42.51123" lon="-0.1335">
        <ele>905.1</ele>
        <time>2017-08-13T10:31:59Z</time>
      </trkpt>
      <trkpt lat="42.51121" lon="-0.13347">
        <ele>905.2</ele>
        <time>2017-08-13T10:32:01Z</time>
      </trkpt>
      <trkpt lat="42.51119" lon="-0.13344">
        <ele>905.2</ele>
        <time>2017-08-13T10:32:03Z</time>
      </trkpt>
      <trkpt lat="42.51117" lon="-0.13342">
        <ele>905.1</ele>
        <time>2017-08-13T10:32:05Z</time>
      </trkpt>
      <trkpt lat="42.51114" lon="-0.1334">
        <ele>904.9</ele>
        <time>2017-08-13T10:32:07Z</time>
      </trkpt>
      <trkpt lat="42.51112" lon="-0.13337">
        <ele>904.8</ele>
        <time>2017-08-13T10:32:09Z</time>
      </trkpt>
      <trkpt lat="42.51111" lon="-0.13332">
        <ele>904.5</ele>
        <time>2017-08-13T10:32:12Z</time>
      </trkpt>
      <trkpt lat="42.51108" lon="-0.13328">
        <ele>904.3</ele>
        <time>2017-08-13T10:32:14Z</time>
      </trkpt>
      <trkpt lat="42.51106" lon="-0.13324">
        <ele>904.1</ele>
        <time>2017-08-13T10:32:16Z</time>
      </trkpt>
      <trkpt lat="42.51105" lon="-0.13321">
        <ele>904</ele>
        <time>2017-08-13T10:32:18Z</time>
      </trkpt>
      <trkpt lat="42.51104" lon="-0.13316">
        <ele>904.1</ele>
        <time>2017-08-13T10:32:21Z</time>
      </trkpt>
      <trkpt lat="42.51103" lon="-0.13312">
        <ele>904.8</ele>
        <time>2017-08-13T10:32:23Z</time>
      </trkpt>
      <trkpt lat="42.51102" lon="-0.13308">
        <ele>905.4</ele>
        <time>2017-08-13T10:32:26Z</time>
      </trkpt>
      <trkpt lat="42.511" lon="-0.13304">
        <ele>905.7</ele>
        <time>2017-08-13T10:32:30Z</time>
      </trkpt>
      <trkpt lat="42.51098" lon="-0.13301">
        <ele>905.9</ele>
        <time>2017-08-13T10:32:33Z</time>
      </trkpt>
      <trkpt lat="42.51095" lon="-0.133">
        <ele>906.3</ele>
        <time>2017-08-13T10:32:35Z</time>
      </trkpt>
      <trkpt lat="42.51092" lon="-0.13299">
        <ele>906.7</ele>
        <time>2017-08-13T10:32:37Z</time>
      </trkpt>
      <trkpt lat="42.51087" lon="-0.13298">
        <ele>907.5</ele>
        <time>2017-08-13T10:32:40Z</time>
      </trkpt>
      <trkpt lat="42.51085" lon="-0.13299">
        <ele>908.1</ele>
        <time>2017-08-13T10:32:42Z</time>
      </trkpt>
      <trkpt lat="42.51081" lon="-0.133">
        <ele>909.2</ele>
        <time>2017-08-13T10:32:45Z</time>
      </trkpt>
      <trkpt lat="42.51078" lon="-0.133">
        <ele>910</ele>
        <time>2017-08-13T10:32:48Z</time>
      </trkpt>
      <trkpt lat="42.51075" lon="-0.13301">
        <ele>910.7</ele>
        <time>2017-08-13T10:32:52Z</time>
      </trkpt>
      <trkpt lat="42.51071" lon="-0.13302">
        <ele>911.5</ele>
        <time>2017-08-13T10:32:55Z</time>
      </trkpt>
      <trkpt lat="42.51069" lon="-0.13302">
        <ele>912.4</ele>
        <time>2017-08-13T10:32:57Z</time>
      </trkpt>
      <trkpt lat="42.51066" lon="-0.13302">
        <ele>913.2</ele>
        <time>2017-08-13T10:32:59Z</time>
      </trkpt>
      <trkpt lat="42.51062" lon="-0.13301">
        <ele>913.9</ele>
        <time>2017-08-13T10:33:02Z</time>
      </trkpt>
      <trkpt lat="42.51059" lon="-0.13301">
        <ele>914.6</ele>
        <time>2017-08-13T10:33:05Z</time>
      </trkpt>
      <trkpt lat="42.51056" lon="-0.133">
        <ele>914.6</ele>
        <time>2017-08-13T10:33:07Z</time>
      </trkpt>
      <trkpt lat="42.51052" lon="-0.133">
        <ele>914.3</ele>
        <time>2017-08-13T10:33:10Z</time>
      </trkpt>
      <trkpt lat="42.51049" lon="-0.133">
        <ele>914.2</ele>
        <time>2017-08-13T10:33:12Z</time>
      </trkpt>
      <trkpt lat="42.51047" lon="-0.133">
        <ele>914.3</ele>
        <time>2017-08-13T10:33:14Z</time>
      </trkpt>
      <trkpt lat="42.51042" lon="-0.13301">
        <ele>914.3</ele>
        <time>2017-08-13T10:33:17Z</time>
      </trkpt>
      <trkpt lat="42.51039" lon="-0.13301">
        <ele>914.2</ele>
        <time>2017-08-13T10:33:19Z</time>
      </trkpt>
      <trkpt lat="42.51035" lon="-0.13302">
        <ele>914.2</ele>
        <time>2017-08-13T10:33:21Z</time>
      </trkpt>
      <trkpt lat="42.51031" lon="-0.13303">
        <ele>914.6</ele>
        <time>2017-08-13T10:33:23Z</time>
      </trkpt>
      <trkpt lat="42.51028" lon="-0.13303">
        <ele>914.6</ele>
        <time>2017-08-13T10:33:26Z</time>
      </trkpt>
      <trkpt lat="42.51024" lon="-0.13303">
        <ele>914.6</ele>
        <time>2017-08-13T10:33:28Z</time>
      </trkpt>
      <trkpt lat="42.51021" lon="-0.13303">
        <ele>914.7</ele>
        <time>2017-08-13T10:33:30Z</time>
      </trkpt>
      <trkpt lat="42.51017" lon="-0.13302">
        <ele>914.8</ele>
        <time>2017-08-13T10:33:32Z</time>
      </trkpt>
      <trkpt lat="42.51014" lon="-0.13302">
        <ele>914.9</ele>
        <time>2017-08-13T10:33:34Z</time>
      </trkpt>
      <trkpt lat="42.5101" lon="-0.13303">
        <ele>915.1</ele>
        <time>2017-08-13T10:33:36Z</time>
      </trkpt>
      <trkpt lat="42.51007" lon="-0.13306">
        <ele>915.1</ele>
        <time>2017-08-13T10:33:38Z</time>
      </trkpt>
      <trkpt lat="42.51005" lon="-0.1331">
        <ele>915.1</ele>
        <time>2017-08-13T10:33:40Z</time>
      </trkpt>
      <trkpt lat="42.51005" lon="-0.13314">
        <ele>915.2</ele>
        <time>2017-08-13T10:33:42Z</time>
      </trkpt>
      <trkpt lat="42.51006" lon="-0.13318">
        <ele>916</ele>
        <time>2017-08-13T10:33:44Z</time>
      </trkpt>
      <trkpt lat="42.51008" lon="-0.13322">
        <ele>916.9</ele>
        <time>2017-08-13T10:33:46Z</time>
      </trkpt>
      <trkpt lat="42.5101" lon="-0.13325">
        <ele>917.8</ele>
        <time>2017-08-13T10:33:48Z</time>
      </trkpt>
      <trkpt lat="42.51013" lon="-0.13327">
        <ele>918.7</ele>
        <time>2017-08-13T10:33:50Z</time>
      </trkpt>
      <trkpt lat="42.51015" lon="-0.13329">
        <ele>920.7</ele>
        <time>2017-08-13T10:33:52Z</time>
      </trkpt>
      <trkpt lat="42.51019" lon="-0.13333">
        <ele>922.4</ele>
        <time>2017-08-13T10:33:55Z</time>
      </trkpt>
      <trkpt lat="42.51021" lon="-0.13335">
        <ele>923</ele>
        <time>2017-08-13T10:33:57Z</time>
      </trkpt>
      <trkpt lat="42.51024" lon="-0.13339">
        <ele>923.6</ele>
        <time>2017-08-13T10:34:00Z</time>
      </trkpt>
      <trkpt lat="42.51026" lon="-0.13341">
        <ele>923.9</ele>
        <time>2017-08-13T10:34:02Z</time>
      </trkpt>
      <trkpt lat="42.51029" lon="-0.13343">
        <ele>924.3</ele>
        <time>2017-08-13T10:34:04Z</time>
      </trkpt>
      <trkpt lat="42.51031" lon="-0.13346">
        <ele>925</ele>
        <time>2017-08-13T10:34:06Z</time>
      </trkpt>
      <trkpt lat="42.51034" lon="-0.13347">
        <ele>925.7</ele>
        <time>2017-08-13T10:34:08Z</time>
      </trkpt>
      <trkpt lat="42.51037" lon="-0.13349">
        <ele>926.1</ele>
        <time>2017-08-13T10:34:10Z</time>
      </trkpt>
      <trkpt lat="42.5104" lon="-0.13351">
        <ele>926.3</ele>
        <time>2017-08-13T10:34:12Z</time>
      </trkpt>
      <trkpt lat="42.51043" lon="-0.13353">
        <ele>926.7</ele>
        <time>2017-08-13T10:34:14Z</time>
      </trkpt>
      <trkpt lat="42.51046" lon="-0.13355">
        <ele>927.3</ele>
        <time>2017-08-13T10:34:16Z</time>
      </trkpt>
      <trkpt lat="42.51049" lon="-0.13358">
        <ele>928</ele>
        <time>2017-08-13T10:34:19Z</time>
      </trkpt>
      <trkpt lat="42.51052" lon="-0.13359">
        <ele>928.2</ele>
        <time>2017-08-13T10:34:21Z</time>
      </trkpt>
      <trkpt lat="42.51055" lon="-0.13362">
        <ele>928.3</ele>
        <time>2017-08-13T10:34:24Z</time>
      </trkpt>
      <trkpt lat="42.51057" lon="-0.13365">
        <ele>928.4</ele>
        <time>2017-08-13T10:34:26Z</time>
      </trkpt>
      <trkpt lat="42.51059" lon="-0.13368">
        <ele>928.5</ele>
        <time>2017-08-13T10:34:28Z</time>
      </trkpt>
      <trkpt lat="42.51062" lon="-0.13371">
        <ele>928.7</ele>
        <time>2017-08-13T10:34:31Z</time>
      </trkpt>
      <trkpt lat="42.51064" lon="-0.13375">
        <ele>929.4</ele>
        <time>2017-08-13T10:34:34Z</time>
      </trkpt>
      <trkpt lat="42.51065" lon="-0.1338">
        <ele>930.1</ele>
        <time>2017-08-13T10:34:37Z</time>
      </trkpt>
      <trkpt lat="42.51065" lon="-0.13383">
        <ele>930.6</ele>
        <time>2017-08-13T10:34:39Z</time>
      </trkpt>
      <trkpt lat="42.51066" lon="-0.13387">
        <ele>931</ele>
        <time>2017-08-13T10:34:41Z</time>
      </trkpt>
      <trkpt lat="42.51066" lon="-0.13393">
        <ele>931.9</ele>
        <time>2017-08-13T10:34:44Z</time>
      </trkpt>
      <trkpt lat="42.51067" lon="-0.13396">
        <ele>933</ele>
        <time>2017-08-13T10:34:46Z</time>
      </trkpt>
      <trkpt lat="42.51068" lon="-0.134">
        <ele>934.2</ele>
        <time>2017-08-13T10:34:48Z</time>
      </trkpt>
      <trkpt lat="42.51069" lon="-0.13404">
        <ele>935.3</ele>
        <time>2017-08-13T10:34:50Z</time>
      </trkpt>
      <trkpt lat="42.51069" lon="-0.13408">
        <ele>936.3</ele>
        <time>2017-08-13T10:34:52Z</time>
      </trkpt>
      <trkpt lat="42.5107" lon="-0.13413">
        <ele>937.4</ele>
        <time>2017-08-13T10:34:54Z</time>
      </trkpt>
      <trkpt lat="42.51071" lon="-0.13416">
        <ele>938.5</ele>
        <time>2017-08-13T10:34:56Z</time>
      </trkpt>
      <trkpt lat="42.5107" lon="-0.1342">
        <ele>939.7</ele>
        <time>2017-08-13T10:34:58Z</time>
      </trkpt>
      <trkpt lat="42.51068" lon="-0.13423">
        <ele>941.1</ele>
        <time>2017-08-13T10:35:00Z</time>
      </trkpt>
      <trkpt lat="42.51064" lon="-0.13424">
        <ele>943.8</ele>
        <time>2017-08-13T10:35:03Z</time>
      </trkpt>
      <trkpt lat="42.51061" lon="-0.13423">
        <ele>945.5</ele>
        <time>2017-08-13T10:35:05Z</time>
      </trkpt>
      <trkpt lat="42.51059" lon="-0.1342">
        <ele>945.8</ele>
        <time>2017-08-13T10:35:07Z</time>
      </trkpt>
      <trkpt lat="42.51057" lon="-0.13417">
        <ele>945.9</ele>
        <time>2017-08-13T10:35:09Z</time>
      </trkpt>
      <trkpt lat="42.51055" lon="-0.13414">
        <ele>945.8</ele>
        <time>2017-08-13T10:35:11Z</time>
      </trkpt>
      <trkpt lat="42.51053" lon="-0.13411">
        <ele>943.9</ele>
        <time>2017-08-13T10:35:13Z</time>
      </trkpt>
      <trkpt lat="42.51051" lon="-0.13408">
        <ele>942.4</ele>
        <time>2017-08-13T10:35:15Z</time>
      </trkpt>
      <trkpt lat="42.51048" lon="-0.13403">
        <ele>941.3</ele>
        <time>2017-08-13T10:35:18Z</time>
      </trkpt>
      <trkpt lat="42.51045" lon="-0.13402">
        <ele>940.5</ele>
        <time>2017-08-13T10:35:20Z</time>
      </trkpt>
      <trkpt lat="42.51042" lon="-0.13401">
        <ele>939.7</ele>
        <time>2017-08-13T10:35:22Z</time>
      </trkpt>
      <trkpt lat="42.51038" lon="-0.134">
        <ele>937.7</ele>
        <time>2017-08-13T10:35:24Z</time>
      </trkpt>
      <trkpt lat="42.51035" lon="-0.13399">
        <ele>936.9</ele>
        <time>2017-08-13T10:35:26Z</time>
      </trkpt>
      <trkpt lat="42.51031" lon="-0.13398">
        <ele>937.1</ele>
        <time>2017-08-13T10:35:28Z</time>
      </trkpt>
      <trkpt lat="42.51028" lon="-0.13397">
        <ele>936.7</ele>
        <time>2017-08-13T10:35:30Z</time>
      </trkpt>
      <trkpt lat="42.51024" lon="-0.13396">
        <ele>936.8</ele>
        <time>2017-08-13T10:35:32Z</time>
      </trkpt>
      <trkpt lat="42.51021" lon="-0.13397">
        <ele>937.2</ele>
        <time>2017-08-13T10:35:34Z</time>
      </trkpt>
      <trkpt lat="42.51018" lon="-0.13396">
        <ele>937.6</ele>
        <time>2017-08-13T10:35:36Z</time>
      </trkpt>
      <trkpt lat="42.51014" lon="-0.13396">
        <ele>938</ele>
        <time>2017-08-13T10:35:38Z</time>
      </trkpt>
      <trkpt lat="42.51011" lon="-0.13396">
        <ele>938.3</ele>
        <time>2017-08-13T10:35:40Z</time>
      </trkpt>
      <trkpt lat="42.51008" lon="-0.13395">
        <ele>938.6</ele>
        <time>2017-08-13T10:35:43Z</time>
      </trkpt>
      <trkpt lat="42.51004" lon="-0.13394">
        <ele>939.1</ele>
        <time>2017-08-13T10:35:47Z</time>
      </trkpt>
      <trkpt lat="42.51" lon="-0.13395">
        <ele>939.5</ele>
        <time>2017-08-13T10:35:50Z</time>
      </trkpt>
      <trkpt lat="42.50997" lon="-0.13397">
        <ele>939.7</ele>
        <time>2017-08-13T10:35:52Z</time>
      </trkpt>
      <trkpt lat="42.50994" lon="-0.13398">
        <ele>940</ele>
        <time>2017-08-13T10:35:54Z</time>
      </trkpt>
      <trkpt lat="42.50991" lon="-0.13398">
        <ele>940.6</ele>
        <time>2017-08-13T10:35:56Z</time>
      </trkpt>
      <trkpt lat="42.50988" lon="-0.13399">
        <ele>941.2</ele>
        <time>2017-08-13T10:35:58Z</time>
      </trkpt>
      <trkpt lat="42.50984" lon="-0.134">
        <ele>941.3</ele>
        <time>2017-08-13T10:36:01Z</time>
      </trkpt>
      <trkpt lat="42.50981" lon="-0.13399">
        <ele>941.2</ele>
        <time>2017-08-13T10:36:03Z</time>
      </trkpt>
      <trkpt lat="42.50977" lon="-0.13399">
        <ele>940.9</ele>
        <time>2017-08-13T10:36:06Z</time>
      </trkpt>
      <trkpt lat="42.50974" lon="-0.134">
        <ele>940.6</ele>
        <time>2017-08-13T10:36:08Z</time>
      </trkpt>
      <trkpt lat="42.50971" lon="-0.13401">
        <ele>940.2</ele>
        <time>2017-08-13T10:36:10Z</time>
      </trkpt>
      <trkpt lat="42.50969" lon="-0.13406">
        <ele>939.6</ele>
        <time>2017-08-13T10:36:12Z</time>
      </trkpt>
      <trkpt lat="42.5097" lon="-0.13411">
        <ele>939.4</ele>
        <time>2017-08-13T10:36:14Z</time>
      </trkpt>
      <trkpt lat="42.50973" lon="-0.13415">
        <ele>939.5</ele>
        <time>2017-08-13T10:36:16Z</time>
      </trkpt>
      <trkpt lat="42.50976" lon="-0.13416">
        <ele>939.5</ele>
        <time>2017-08-13T10:36:18Z</time>
      </trkpt>
      <trkpt lat="42.5098" lon="-0.13415">
        <ele>939.7</ele>
        <time>2017-08-13T10:36:20Z</time>
      </trkpt>
      <trkpt lat="42.50983" lon="-0.13414">
        <ele>942.4</ele>
        <time>2017-08-13T10:36:22Z</time>
      </trkpt>
      <trkpt lat="42.50987" lon="-0.13414">
        <ele>943.9</ele>
        <time>2017-08-13T10:36:24Z</time>
      </trkpt>
      <trkpt lat="42.5099" lon="-0.13415">
        <ele>945.4</ele>
        <time>2017-08-13T10:36:26Z</time>
      </trkpt>
      <trkpt lat="42.50993" lon="-0.13415">
        <ele>946.3</ele>
        <time>2017-08-13T10:36:28Z</time>
      </trkpt>
      <trkpt lat="42.50996" lon="-0.13416">
        <ele>946.8</ele>
        <time>2017-08-13T10:36:30Z</time>
      </trkpt>
      <trkpt lat="42.51" lon="-0.13416">
        <ele>947.6</ele>
        <time>2017-08-13T10:36:33Z</time>
      </trkpt>
      <trkpt lat="42.51003" lon="-0.13417">
        <ele>947.8</ele>
        <time>2017-08-13T10:36:35Z</time>
      </trkpt>
      <trkpt lat="42.51006" lon="-0.13418">
        <ele>947.9</ele>
        <time>2017-08-13T10:36:37Z</time>
      </trkpt>
      <trkpt lat="42.51009" lon="-0.1342">
        <ele>948.2</ele>
        <time>2017-08-13T10:36:39Z</time>
      </trkpt>
      <trkpt lat="42.51011" lon="-0.13422">
        <ele>948.7</ele>
        <time>2017-08-13T10:36:41Z</time>
      </trkpt>
      <trkpt lat="42.51014" lon="-0.13425">
        <ele>949.2</ele>
        <time>2017-08-13T10:36:44Z</time>
      </trkpt>
      <trkpt lat="42.51017" lon="-0.13427">
        <ele>949</ele>
        <time>2017-08-13T10:36:46Z</time>
      </trkpt>
      <trkpt lat="42.51019" lon="-0.1343">
        <ele>948.6</ele>
        <time>2017-08-13T10:36:48Z</time>
      </trkpt>
      <trkpt lat="42.51021" lon="-0.13434">
        <ele>949</ele>
        <time>2017-08-13T10:36:50Z</time>
      </trkpt>
      <trkpt lat="42.51023" lon="-0.13438">
        <ele>949.4</ele>
        <time>2017-08-13T10:36:52Z</time>
      </trkpt>
      <trkpt lat="42.51025" lon="-0.13441">
        <ele>949.7</ele>
        <time>2017-08-13T10:36:54Z</time>
      </trkpt>
      <trkpt lat="42.51027" lon="-0.13444">
        <ele>950</ele>
        <time>2017-08-13T10:36:56Z</time>
      </trkpt>
      <trkpt lat="42.51028" lon="-0.13448">
        <ele>950.9</ele>
        <time>2017-08-13T10:36:58Z</time>
      </trkpt>
      <trkpt lat="42.51029" lon="-0.13452">
        <ele>951.9</ele>
        <time>2017-08-13T10:37:00Z</time>
      </trkpt>
      <trkpt lat="42.51031" lon="-0.13455">
        <ele>952.8</ele>
        <time>2017-08-13T10:37:02Z</time>
      </trkpt>
      <trkpt lat="42.51032" lon="-0.13459">
        <ele>953.4</ele>
        <time>2017-08-13T10:37:04Z</time>
      </trkpt>
      <trkpt lat="42.51033" lon="-0.13463">
        <ele>954.1</ele>
        <time>2017-08-13T10:37:06Z</time>
      </trkpt>
      <trkpt lat="42.51034" lon="-0.13466">
        <ele>955.6</ele>
        <time>2017-08-13T10:37:08Z</time>
      </trkpt>
      <trkpt lat="42.51036" lon="-0.1347">
        <ele>957.3</ele>
        <time>2017-08-13T10:37:10Z</time>
      </trkpt>
      <trkpt lat="42.51037" lon="-0.13474">
        <ele>958.8</ele>
        <time>2017-08-13T10:37:12Z</time>
      </trkpt>
      <trkpt lat="42.51038" lon="-0.13477">
        <ele>959.8</ele>
        <time>2017-08-13T10:37:14Z</time>
      </trkpt>
      <trkpt lat="42.51039" lon="-0.13481">
        <ele>960.9</ele>
        <time>2017-08-13T10:37:16Z</time>
      </trkpt>
      <trkpt lat="42.51041" lon="-0.13485">
        <ele>962.1</ele>
        <time>2017-08-13T10:37:19Z</time>
      </trkpt>
      <trkpt lat="42.51043" lon="-0.13488">
        <ele>962.7</ele>
        <time>2017-08-13T10:37:21Z</time>
      </trkpt>
      <trkpt lat="42.51045" lon="-0.13491">
        <ele>963.2</ele>
        <time>2017-08-13T10:37:23Z</time>
      </trkpt>
      <trkpt lat="42.51048" lon="-0.13494">
        <ele>963.3</ele>
        <time>2017-08-13T10:37:25Z</time>
      </trkpt>
      <trkpt lat="42.51051" lon="-0.13496">
        <ele>963.4</ele>
        <time>2017-08-13T10:37:27Z</time>
      </trkpt>
      <trkpt lat="42.51054" lon="-0.13499">
        <ele>963.5</ele>
        <time>2017-08-13T10:37:29Z</time>
      </trkpt>
      <trkpt lat="42.51057" lon="-0.13503">
        <ele>963.6</ele>
        <time>2017-08-13T10:37:31Z</time>
      </trkpt>
      <trkpt lat="42.51059" lon="-0.13506">
        <ele>964</ele>
        <time>2017-08-13T10:37:33Z</time>
      </trkpt>
      <trkpt lat="42.51061" lon="-0.1351">
        <ele>964.4</ele>
        <time>2017-08-13T10:37:35Z</time>
      </trkpt>
      <trkpt lat="42.51062" lon="-0.13514">
        <ele>964.9</ele>
        <time>2017-08-13T10:37:37Z</time>
      </trkpt>
      <trkpt lat="42.51064" lon="-0.13519">
        <ele>965.3</ele>
        <time>2017-08-13T10:37:39Z</time>
      </trkpt>
      <trkpt lat="42.51066" lon="-0.13523">
        <ele>966</ele>
        <time>2017-08-13T10:37:41Z</time>
      </trkpt>
      <trkpt lat="42.51068" lon="-0.13527">
        <ele>966.9</ele>
        <time>2017-08-13T10:37:43Z</time>
      </trkpt>
      <trkpt lat="42.5107" lon="-0.1353">
        <ele>967.7</ele>
        <time>2017-08-13T10:37:45Z</time>
      </trkpt>
      <trkpt lat="42.51073" lon="-0.13534">
        <ele>968.4</ele>
        <time>2017-08-13T10:37:47Z</time>
      </trkpt>
      <trkpt lat="42.51075" lon="-0.13538">
        <ele>969</ele>
        <time>2017-08-13T10:37:50Z</time>
      </trkpt>
      <trkpt lat="42.51077" lon="-0.13541">
        <ele>968.8</ele>
        <time>2017-08-13T10:37:52Z</time>
      </trkpt>
      <trkpt lat="42.5108" lon="-0.13544">
        <ele>968.6</ele>
        <time>2017-08-13T10:37:54Z</time>
      </trkpt>
      <trkpt lat="42.51082" lon="-0.13547">
        <ele>968.4</ele>
        <time>2017-08-13T10:37:56Z</time>
      </trkpt>
      <trkpt lat="42.51085" lon="-0.1355">
        <ele>968.2</ele>
        <time>2017-08-13T10:37:58Z</time>
      </trkpt>
      <trkpt lat="42.51087" lon="-0.13553">
        <ele>968.1</ele>
        <time>2017-08-13T10:38:00Z</time>
      </trkpt>
      <trkpt lat="42.5109" lon="-0.13556">
        <ele>968.4</ele>
        <time>2017-08-13T10:38:02Z</time>
      </trkpt>
      <trkpt lat="42.51092" lon="-0.1356">
        <ele>968.7</ele>
        <time>2017-08-13T10:38:04Z</time>
      </trkpt>
      <trkpt lat="42.51094" lon="-0.13563">
        <ele>969.1</ele>
        <time>2017-08-13T10:38:06Z</time>
      </trkpt>
      <trkpt lat="42.51096" lon="-0.13566">
        <ele>969.5</ele>
        <time>2017-08-13T10:38:08Z</time>
      </trkpt>
      <trkpt lat="42.51098" lon="-0.1357">
        <ele>970</ele>
        <time>2017-08-13T10:38:10Z</time>
      </trkpt>
      <trkpt lat="42.51099" lon="-0.13574">
        <ele>970.6</ele>
        <time>2017-08-13T10:38:12Z</time>
      </trkpt>
      <trkpt lat="42.51101" lon="-0.13578">
        <ele>971.4</ele>
        <time>2017-08-13T10:38:14Z</time>
      </trkpt>
      <trkpt lat="42.51103" lon="-0.13582">
        <ele>971.9</ele>
        <time>2017-08-13T10:38:16Z</time>
      </trkpt>
      <trkpt lat="42.51104" lon="-0.13586">
        <ele>972.2</ele>
        <time>2017-08-13T10:38:18Z</time>
      </trkpt>
      <trkpt lat="42.51107" lon="-0.13589">
        <ele>972.5</ele>
        <time>2017-08-13T10:38:20Z</time>
      </trkpt>
      <trkpt lat="42.51109" lon="-0.13592">
        <ele>972.8</ele>
        <time>2017-08-13T10:38:22Z</time>
      </trkpt>
      <trkpt lat="42.51111" lon="-0.13595">
        <ele>973.1</ele>
        <time>2017-08-13T10:38:24Z</time>
      </trkpt>
      <trkpt lat="42.51113" lon="-0.13599">
        <ele>973.6</ele>
        <time>2017-08-13T10:38:26Z</time>
      </trkpt>
      <trkpt lat="42.51113" lon="-0.13603">
        <ele>974.6</ele>
        <time>2017-08-13T10:38:28Z</time>
      </trkpt>
      <trkpt lat="42.51112" lon="-0.13607">
        <ele>975.7</ele>
        <time>2017-08-13T10:38:30Z</time>
      </trkpt>
      <trkpt lat="42.51109" lon="-0.1361">
        <ele>976.4</ele>
        <time>2017-08-13T10:38:33Z</time>
      </trkpt>
      <trkpt lat="42.51106" lon="-0.13607">
        <ele>977.1</ele>
        <time>2017-08-13T10:38:35Z</time>
      </trkpt>
      <trkpt lat="42.51102" lon="-0.13605">
        <ele>978</ele>
        <time>2017-08-13T10:38:37Z</time>
      </trkpt>
      <trkpt lat="42.51098" lon="-0.13604">
        <ele>979.3</ele>
        <time>2017-08-13T10:38:39Z</time>
      </trkpt>
      <trkpt lat="42.51095" lon="-0.13601">
        <ele>979.6</ele>
        <time>2017-08-13T10:38:41Z</time>
      </trkpt>
      <trkpt lat="42.51092" lon="-0.13598">
        <ele>980.6</ele>
        <time>2017-08-13T10:38:43Z</time>
      </trkpt>
      <trkpt lat="42.5109" lon="-0.13595">
        <ele>980.8</ele>
        <time>2017-08-13T10:38:45Z</time>
      </trkpt>
      <trkpt lat="42.51087" lon="-0.13592">
        <ele>980.9</ele>
        <time>2017-08-13T10:38:47Z</time>
      </trkpt>
      <trkpt lat="42.51084" lon="-0.13589">
        <ele>980.9</ele>
        <time>2017-08-13T10:38:49Z</time>
      </trkpt>
      <trkpt lat="42.51082" lon="-0.13586">
        <ele>980.7</ele>
        <time>2017-08-13T10:38:51Z</time>
      </trkpt>
      <trkpt lat="42.51079" lon="-0.13583">
        <ele>981</ele>
        <time>2017-08-13T10:38:53Z</time>
      </trkpt>
      <trkpt lat="42.51077" lon="-0.1358">
        <ele>980.9</ele>
        <time>2017-08-13T10:38:55Z</time>
      </trkpt>
      <trkpt lat="42.51074" lon="-0.13576">
        <ele>979.9</ele>
        <time>2017-08-13T10:38:57Z</time>
      </trkpt>
      <trkpt lat="42.5107" lon="-0.13573">
        <ele>979.1</ele>
        <time>2017-08-13T10:38:59Z</time>
      </trkpt>
      <trkpt lat="42.51067" lon="-0.13571">
        <ele>978.5</ele>
        <time>2017-08-13T10:39:01Z</time>
      </trkpt>
      <trkpt lat="42.51063" lon="-0.13569">
        <ele>978.3</ele>
        <time>2017-08-13T10:39:03Z</time>
      </trkpt>
      <trkpt lat="42.5106" lon="-0.13568">
        <ele>978.5</ele>
        <time>2017-08-13T10:39:05Z</time>
      </trkpt>
      <trkpt lat="42.51055" lon="-0.13568">
        <ele>978.7</ele>
        <time>2017-08-13T10:39:07Z</time>
      </trkpt>
      <trkpt lat="42.51051" lon="-0.13568">
        <ele>978.4</ele>
        <time>2017-08-13T10:39:09Z</time>
      </trkpt>
      <trkpt lat="42.51047" lon="-0.13567">
        <ele>978.7</ele>
        <time>2017-08-13T10:39:11Z</time>
      </trkpt>
      <trkpt lat="42.51044" lon="-0.13567">
        <ele>979</ele>
        <time>2017-08-13T10:39:13Z</time>
      </trkpt>
      <trkpt lat="42.5104" lon="-0.13566">
        <ele>979.9</ele>
        <time>2017-08-13T10:39:15Z</time>
      </trkpt>
      <trkpt lat="42.51037" lon="-0.13563">
        <ele>980.9</ele>
        <time>2017-08-13T10:39:18Z</time>
      </trkpt>
      <trkpt lat="42.51034" lon="-0.13561">
        <ele>981.7</ele>
        <time>2017-08-13T10:39:20Z</time>
      </trkpt>
      <trkpt lat="42.51031" lon="-0.13558">
        <ele>982.4</ele>
        <time>2017-08-13T10:39:22Z</time>
      </trkpt>
      <trkpt lat="42.51028" lon="-0.13556">
        <ele>983.4</ele>
        <time>2017-08-13T10:39:24Z</time>
      </trkpt>
      <trkpt lat="42.51024" lon="-0.13554">
        <ele>984.4</ele>
        <time>2017-08-13T10:39:26Z</time>
      </trkpt>
      <trkpt lat="42.51022" lon="-0.1355">
        <ele>985.3</ele>
        <time>2017-08-13T10:39:28Z</time>
      </trkpt>
      <trkpt lat="42.5102" lon="-0.13545">
        <ele>986.3</ele>
        <time>2017-08-13T10:39:30Z</time>
      </trkpt>
      <trkpt lat="42.51017" lon="-0.13542">
        <ele>986.9</ele>
        <time>2017-08-13T10:39:32Z</time>
      </trkpt>
      <trkpt lat="42.51015" lon="-0.13538">
        <ele>987.3</ele>
        <time>2017-08-13T10:39:34Z</time>
      </trkpt>
      <trkpt lat="42.51011" lon="-0.13536">
        <ele>986.7</ele>
        <time>2017-08-13T10:39:36Z</time>
      </trkpt>
      <trkpt lat="42.51008" lon="-0.13533">
        <ele>985.6</ele>
        <time>2017-08-13T10:39:38Z</time>
      </trkpt>
      <trkpt lat="42.51006" lon="-0.13531">
        <ele>985.1</ele>
        <time>2017-08-13T10:39:40Z</time>
      </trkpt>
      <trkpt lat="42.51003" lon="-0.13529">
        <ele>984.7</ele>
        <time>2017-08-13T10:39:42Z</time>
      </trkpt>
      <trkpt lat="42.50999" lon="-0.13528">
        <ele>984.3</ele>
        <time>2017-08-13T10:39:44Z</time>
      </trkpt>
      <trkpt lat="42.50996" lon="-0.13528">
        <ele>983.8</ele>
        <time>2017-08-13T10:39:46Z</time>
      </trkpt>
      <trkpt lat="42.50993" lon="-0.13527">
        <ele>983.2</ele>
        <time>2017-08-13T10:39:48Z</time>
      </trkpt>
      <trkpt lat="42.50989" lon="-0.13525">
        <ele>981.9</ele>
        <time>2017-08-13T10:39:51Z</time>
      </trkpt>
      <trkpt lat="42.50986" lon="-0.13524">
        <ele>981.1</ele>
        <time>2017-08-13T10:39:53Z</time>
      </trkpt>
      <trkpt lat="42.50983" lon="-0.13522">
        <ele>980.3</ele>
        <time>2017-08-13T10:39:55Z</time>
      </trkpt>
      <trkpt lat="42.5098" lon="-0.13521">
        <ele>980.6</ele>
        <time>2017-08-13T10:39:57Z</time>
      </trkpt>
      <trkpt lat="42.50977" lon="-0.1352">
        <ele>980.5</ele>
        <time>2017-08-13T10:40:00Z</time>
      </trkpt>
      <trkpt lat="42.50973" lon="-0.1352">
        <ele>979.4</ele>
        <time>2017-08-13T10:40:03Z</time>
      </trkpt>
      <trkpt lat="42.50969" lon="-0.13521">
        <ele>979.4</ele>
        <time>2017-08-13T10:40:06Z</time>
      </trkpt>
      <trkpt lat="42.50966" lon="-0.13523">
        <ele>979.5</ele>
        <time>2017-08-13T10:40:08Z</time>
      </trkpt>
      <trkpt lat="42.50965" lon="-0.13526">
        <ele>979.6</ele>
        <time>2017-08-13T10:40:10Z</time>
      </trkpt>
      <trkpt lat="42.50963" lon="-0.13529">
        <ele>979.6</ele>
        <time>2017-08-13T10:40:12Z</time>
      </trkpt>
      <trkpt lat="42.50961" lon="-0.13532">
        <ele>979.3</ele>
        <time>2017-08-13T10:40:14Z</time>
      </trkpt>
      <trkpt lat="42.50959" lon="-0.13534">
        <ele>979.6</ele>
        <time>2017-08-13T10:40:16Z</time>
      </trkpt>
      <trkpt lat="42.50957" lon="-0.13537">
        <ele>980.6</ele>
        <time>2017-08-13T10:40:18Z</time>
      </trkpt>
      <trkpt lat="42.50954" lon="-0.13541">
        <ele>980.5</ele>
        <time>2017-08-13T10:40:21Z</time>
      </trkpt>
      <trkpt lat="42.50953" lon="-0.13544">
        <ele>980.3</ele>
        <time>2017-08-13T10:40:23Z</time>
      </trkpt>
      <trkpt lat="42.50951" lon="-0.13547">
        <ele>981.3</ele>
        <time>2017-08-13T10:40:25Z</time>
      </trkpt>
      <trkpt lat="42.50949" lon="-0.13551">
        <ele>982.5</ele>
        <time>2017-08-13T10:40:28Z</time>
      </trkpt>
      <trkpt lat="42.50947" lon="-0.13554">
        <ele>983.8</ele>
        <time>2017-08-13T10:40:31Z</time>
      </trkpt>
      <trkpt lat="42.50945" lon="-0.13558">
        <ele>985.1</ele>
        <time>2017-08-13T10:40:34Z</time>
      </trkpt>
      <trkpt lat="42.50943" lon="-0.13563">
        <ele>987</ele>
        <time>2017-08-13T10:40:37Z</time>
      </trkpt>
      <trkpt lat="42.5094" lon="-0.13567">
        <ele>988.8</ele>
        <time>2017-08-13T10:40:39Z</time>
      </trkpt>
      <trkpt lat="42.50938" lon="-0.1357">
        <ele>990.5</ele>
        <time>2017-08-13T10:40:41Z</time>
      </trkpt>
      <trkpt lat="42.50935" lon="-0.13573">
        <ele>992.3</ele>
        <time>2017-08-13T10:40:43Z</time>
      </trkpt>
      <trkpt lat="42.50932" lon="-0.13576">
        <ele>993.8</ele>
        <time>2017-08-13T10:40:45Z</time>
      </trkpt>
      <trkpt lat="42.50929" lon="-0.13579">
        <ele>995.2</ele>
        <time>2017-08-13T10:40:47Z</time>
      </trkpt>
      <trkpt lat="42.50926" lon="-0.13582">
        <ele>996.4</ele>
        <time>2017-08-13T10:40:49Z</time>
      </trkpt>
      <trkpt lat="42.50924" lon="-0.13584">
        <ele>997</ele>
        <time>2017-08-13T10:40:51Z</time>
      </trkpt>
      <trkpt lat="42.50921" lon="-0.13586">
        <ele>997.1</ele>
        <time>2017-08-13T10:40:53Z</time>
      </trkpt>
      <trkpt lat="42.50917" lon="-0.13587">
        <ele>997.3</ele>
        <time>2017-08-13T10:40:55Z</time>
      </trkpt>
      <trkpt lat="42.50914" lon="-0.13589">
        <ele>997.9</ele>
        <time>2017-08-13T10:40:57Z</time>
      </trkpt>
      <trkpt lat="42.50911" lon="-0.1359">
        <ele>998.4</ele>
        <time>2017-08-13T10:40:59Z</time>
      </trkpt>
      <trkpt lat="42.50908" lon="-0.13591">
        <ele>998.7</ele>
        <time>2017-08-13T10:41:01Z</time>
      </trkpt>
      <trkpt lat="42.50905" lon="-0.13594">
        <ele>997.9</ele>
        <time>2017-08-13T10:41:03Z</time>
      </trkpt>
      <trkpt lat="42.50901" lon="-0.13597">
        <ele>997</ele>
        <time>2017-08-13T10:41:05Z</time>
      </trkpt>
      <trkpt lat="42.50898" lon="-0.136">
        <ele>996.6</ele>
        <time>2017-08-13T10:41:07Z</time>
      </trkpt>
      <trkpt lat="42.50895" lon="-0.13605">
        <ele>996.2</ele>
        <time>2017-08-13T10:41:09Z</time>
      </trkpt>
      <trkpt lat="42.50893" lon="-0.1361">
        <ele>995.7</ele>
        <time>2017-08-13T10:41:11Z</time>
      </trkpt>
      <trkpt lat="42.50891" lon="-0.13615">
        <ele>995.6</ele>
        <time>2017-08-13T10:41:13Z</time>
      </trkpt>
      <trkpt lat="42.50888" lon="-0.1362">
        <ele>995.5</ele>
        <time>2017-08-13T10:41:15Z</time>
      </trkpt>
      <trkpt lat="42.50884" lon="-0.13624">
        <ele>995.8</ele>
        <time>2017-08-13T10:41:17Z</time>
      </trkpt>
      <trkpt lat="42.5088" lon="-0.13627">
        <ele>997.2</ele>
        <time>2017-08-13T10:41:19Z</time>
      </trkpt>
      <trkpt lat="42.50876" lon="-0.1363">
        <ele>999.3</ele>
        <time>2017-08-13T10:41:21Z</time>
      </trkpt>
      <trkpt lat="42.50872" lon="-0.13632">
        <ele>1001.4</ele>
        <time>2017-08-13T10:41:23Z</time>
      </trkpt>
      <trkpt lat="42.50868" lon="-0.13632">
        <ele>1002.9</ele>
        <time>2017-08-13T10:41:25Z</time>
      </trkpt>
      <trkpt lat="42.50864" lon="-0.13634">
        <ele>1003.9</ele>
        <time>2017-08-13T10:41:27Z</time>
      </trkpt>
      <trkpt lat="42.5086" lon="-0.13635">
        <ele>1005.4</ele>
        <time>2017-08-13T10:41:29Z</time>
      </trkpt>
      <trkpt lat="42.50857" lon="-0.13637">
        <ele>1007.1</ele>
        <time>2017-08-13T10:41:31Z</time>
      </trkpt>
      <trkpt lat="42.50853" lon="-0.13639">
        <ele>1007</ele>
        <time>2017-08-13T10:41:33Z</time>
      </trkpt>
      <trkpt lat="42.50849" lon="-0.1364">
        <ele>1006.1</ele>
        <time>2017-08-13T10:41:35Z</time>
      </trkpt>
      <trkpt lat="42.50845" lon="-0.13642">
        <ele>1005.6</ele>
        <time>2017-08-13T10:41:37Z</time>
      </trkpt>
      <trkpt lat="42.50842" lon="-0.13644">
        <ele>1004.5</ele>
        <time>2017-08-13T10:41:39Z</time>
      </trkpt>
      <trkpt lat="42.50838" lon="-0.13647">
        <ele>1002.9</ele>
        <time>2017-08-13T10:41:41Z</time>
      </trkpt>
      <trkpt lat="42.50835" lon="-0.13649">
        <ele>1003.7</ele>
        <time>2017-08-13T10:41:43Z</time>
      </trkpt>
      <trkpt lat="42.50831" lon="-0.13652">
        <ele>1004.5</ele>
        <time>2017-08-13T10:41:45Z</time>
      </trkpt>
      <trkpt lat="42.50827" lon="-0.13655">
        <ele>1004.8</ele>
        <time>2017-08-13T10:41:47Z</time>
      </trkpt>
      <trkpt lat="42.50823" lon="-0.13656">
        <ele>1005.5</ele>
        <time>2017-08-13T10:41:49Z</time>
      </trkpt>
      <trkpt lat="42.50818" lon="-0.13657">
        <ele>1006.7</ele>
        <time>2017-08-13T10:41:51Z</time>
      </trkpt>
      <trkpt lat="42.50815" lon="-0.13658">
        <ele>1006.6</ele>
        <time>2017-08-13T10:41:53Z</time>
      </trkpt>
      <trkpt lat="42.50811" lon="-0.1366">
        <ele>1006.2</ele>
        <time>2017-08-13T10:41:56Z</time>
      </trkpt>
      <trkpt lat="42.50807" lon="-0.1366">
        <ele>1006.2</ele>
        <time>2017-08-13T10:41:58Z</time>
      </trkpt>
      <trkpt lat="42.50803" lon="-0.1366">
        <ele>1006.3</ele>
        <time>2017-08-13T10:42:00Z</time>
      </trkpt>
      <trkpt lat="42.50799" lon="-0.1366">
        <ele>1006.3</ele>
        <time>2017-08-13T10:42:02Z</time>
      </trkpt>
      <trkpt lat="42.50796" lon="-0.13661">
        <ele>1005.9</ele>
        <time>2017-08-13T10:42:04Z</time>
      </trkpt>
      <trkpt lat="42.50791" lon="-0.13662">
        <ele>1006.5</ele>
        <time>2017-08-13T10:42:06Z</time>
      </trkpt>
      <trkpt lat="42.50787" lon="-0.13662">
        <ele>1007.2</ele>
        <time>2017-08-13T10:42:08Z</time>
      </trkpt>
      <trkpt lat="42.50782" lon="-0.13661">
        <ele>1007.3</ele>
        <time>2017-08-13T10:42:10Z</time>
      </trkpt>
      <trkpt lat="42.50777" lon="-0.13661">
        <ele>1007.7</ele>
        <time>2017-08-13T10:42:12Z</time>
      </trkpt>
      <trkpt lat="42.50772" lon="-0.1366">
        <ele>1008.5</ele>
        <time>2017-08-13T10:42:14Z</time>
      </trkpt>
      <trkpt lat="42.50769" lon="-0.13658">
        <ele>1009.4</ele>
        <time>2017-08-13T10:42:16Z</time>
      </trkpt>
      <trkpt lat="42.50766" lon="-0.13656">
        <ele>1010.3</ele>
        <time>2017-08-13T10:42:18Z</time>
      </trkpt>
      <trkpt lat="42.50762" lon="-0.13654">
        <ele>1011.2</ele>
        <time>2017-08-13T10:42:20Z</time>
      </trkpt>
      <trkpt lat="42.50759" lon="-0.13651">
        <ele>1011.6</ele>
        <time>2017-08-13T10:42:22Z</time>
      </trkpt>
      <trkpt lat="42.50756" lon="-0.13649">
        <ele>1011.4</ele>
        <time>2017-08-13T10:42:24Z</time>
      </trkpt>
      <trkpt lat="42.50752" lon="-0.13647">
        <ele>1011.6</ele>
        <time>2017-08-13T10:42:26Z</time>
      </trkpt>
      <trkpt lat="42.50749" lon="-0.13645">
        <ele>1011.9</ele>
        <time>2017-08-13T10:42:28Z</time>
      </trkpt>
      <trkpt lat="42.50746" lon="-0.13643">
        <ele>1012.5</ele>
        <time>2017-08-13T10:42:30Z</time>
      </trkpt>
      <trkpt lat="42.50744" lon="-0.13641">
        <ele>1013.8</ele>
        <time>2017-08-13T10:42:32Z</time>
      </trkpt>
      <trkpt lat="42.5074" lon="-0.1364">
        <ele>1015.1</ele>
        <time>2017-08-13T10:42:34Z</time>
      </trkpt>
      <trkpt lat="42.50738" lon="-0.13638">
        <ele>1015.8</ele>
        <time>2017-08-13T10:42:36Z</time>
      </trkpt>
      <trkpt lat="42.50735" lon="-0.13635">
        <ele>1016.6</ele>
        <time>2017-08-13T10:42:38Z</time>
      </trkpt>
      <trkpt lat="42.50732" lon="-0.13632">
        <ele>1017.3</ele>
        <time>2017-08-13T10:42:40Z</time>
      </trkpt>
      <trkpt lat="42.50729" lon="-0.13629">
        <ele>1017.9</ele>
        <time>2017-08-13T10:42:42Z</time>
      </trkpt>
      <trkpt lat="42.50726" lon="-0.13626">
        <ele>1018.8</ele>
        <time>2017-08-13T10:42:44Z</time>
      </trkpt>
      <trkpt lat="42.50723" lon="-0.13622">
        <ele>1019.9</ele>
        <time>2017-08-13T10:42:46Z</time>
      </trkpt>
      <trkpt lat="42.5072" lon="-0.13618">
        <ele>1020.4</ele>
        <time>2017-08-13T10:42:48Z</time>
      </trkpt>
      <trkpt lat="42.50717" lon="-0.13614">
        <ele>1020.4</ele>
        <time>2017-08-13T10:42:50Z</time>
      </trkpt>
      <trkpt lat="42.50714" lon="-0.1361">
        <ele>1020.4</ele>
        <time>2017-08-13T10:42:52Z</time>
      </trkpt>
      <trkpt lat="42.50711" lon="-0.13606">
        <ele>1020.7</ele>
        <time>2017-08-13T10:42:54Z</time>
      </trkpt>
      <trkpt lat="42.50709" lon="-0.13601">
        <ele>1021.1</ele>
        <time>2017-08-13T10:42:56Z</time>
      </trkpt>
      <trkpt lat="42.50708" lon="-0.13594">
        <ele>1021.5</ele>
        <time>2017-08-13T10:42:58Z</time>
      </trkpt>
      <trkpt lat="42.50707" lon="-0.13588">
        <ele>1021.8</ele>
        <time>2017-08-13T10:43:00Z</time>
      </trkpt>
      <trkpt lat="42.50706" lon="-0.13581">
        <ele>1022.4</ele>
        <time>2017-08-13T10:43:02Z</time>
      </trkpt>
      <trkpt lat="42.50706" lon="-0.13575">
        <ele>1022.7</ele>
        <time>2017-08-13T10:43:04Z</time>
      </trkpt>
      <trkpt lat="42.50705" lon="-0.13568">
        <ele>1022.9</ele>
        <time>2017-08-13T10:43:06Z</time>
      </trkpt>
      <trkpt lat="42.50704" lon="-0.13562">
        <ele>1023.3</ele>
        <time>2017-08-13T10:43:08Z</time>
      </trkpt>
      <trkpt lat="42.50703" lon="-0.13556">
        <ele>1023.3</ele>
        <time>2017-08-13T10:43:10Z</time>
      </trkpt>
      <trkpt lat="42.50701" lon="-0.1355">
        <ele>1023.2</ele>
        <time>2017-08-13T10:43:12Z</time>
      </trkpt>
      <trkpt lat="42.507" lon="-0.13544">
        <ele>1023.3</ele>
        <time>2017-08-13T10:43:14Z</time>
      </trkpt>
      <trkpt lat="42.50699" lon="-0.13539">
        <ele>1023.3</ele>
        <time>2017-08-13T10:43:16Z</time>
      </trkpt>
      <trkpt lat="42.50697" lon="-0.13534">
        <ele>1023</ele>
        <time>2017-08-13T10:43:18Z</time>
      </trkpt>
      <trkpt lat="42.50695" lon="-0.1353">
        <ele>1022.9</ele>
        <time>2017-08-13T10:43:20Z</time>
      </trkpt>
      <trkpt lat="42.50692" lon="-0.13526">
        <ele>1022.7</ele>
        <time>2017-08-13T10:43:22Z</time>
      </trkpt>
      <trkpt lat="42.50689" lon="-0.13524">
        <ele>1022.4</ele>
        <time>2017-08-13T10:43:24Z</time>
      </trkpt>
      <trkpt lat="42.50686" lon="-0.13522">
        <ele>1022.1</ele>
        <time>2017-08-13T10:43:26Z</time>
      </trkpt>
      <trkpt lat="42.50683" lon="-0.1352">
        <ele>1021.9</ele>
        <time>2017-08-13T10:43:28Z</time>
      </trkpt>
      <trkpt lat="42.5068" lon="-0.13517">
        <ele>1021.6</ele>
        <time>2017-08-13T10:43:30Z</time>
      </trkpt>
      <trkpt lat="42.50677" lon="-0.13514">
        <ele>1021.5</ele>
        <time>2017-08-13T10:43:32Z</time>
      </trkpt>
      <trkpt lat="42.50674" lon="-0.13511">
        <ele>1021.5</ele>
        <time>2017-08-13T10:43:34Z</time>
      </trkpt>
      <trkpt lat="42.5067" lon="-0.13508">
        <ele>1021.3</ele>
        <time>2017-08-13T10:43:36Z</time>
      </trkpt>
      <trkpt lat="42.50667" lon="-0.13505">
        <ele>1020.6</ele>
        <time>2017-08-13T10:43:38Z</time>
      </trkpt>
      <trkpt lat="42.50665" lon="-0.13502">
        <ele>1019.9</ele>
        <time>2017-08-13T10:43:40Z</time>
      </trkpt>
      <trkpt lat="42.50662" lon="-0.13498">
        <ele>1019.7</ele>
        <time>2017-08-13T10:43:42Z</time>
      </trkpt>
      <trkpt lat="42.50659" lon="-0.13495">
        <ele>1019.5</ele>
        <time>2017-08-13T10:43:44Z</time>
      </trkpt>
      <trkpt lat="42.50656" lon="-0.13492">
        <ele>1019.9</ele>
        <time>2017-08-13T10:43:46Z</time>
      </trkpt>
      <trkpt lat="42.50653" lon="-0.13489">
        <ele>1020.6</ele>
        <time>2017-08-13T10:43:48Z</time>
      </trkpt>
      <trkpt lat="42.50651" lon="-0.13487">
        <ele>1021.2</ele>
        <time>2017-08-13T10:43:50Z</time>
      </trkpt>
      <trkpt lat="42.50648" lon="-0.13484">
        <ele>1022.2</ele>
        <time>2017-08-13T10:43:52Z</time>
      </trkpt>
      <trkpt lat="42.50645" lon="-0.13482">
        <ele>1023.2</ele>
        <time>2017-08-13T10:43:54Z</time>
      </trkpt>
      <trkpt lat="42.50642" lon="-0.13478">
        <ele>1024.4</ele>
        <time>2017-08-13T10:43:56Z</time>
      </trkpt>
      <trkpt lat="42.50641" lon="-0.13473">
        <ele>1025.8</ele>
        <time>2017-08-13T10:43:58Z</time>
      </trkpt>
      <trkpt lat="42.5064" lon="-0.13468">
        <ele>1025.9</ele>
        <time>2017-08-13T10:44:00Z</time>
      </trkpt>
      <trkpt lat="42.5064" lon="-0.13462">
        <ele>1025.7</ele>
        <time>2017-08-13T10:44:02Z</time>
      </trkpt>
      <trkpt lat="42.50639" lon="-0.13456">
        <ele>1026.3</ele>
        <time>2017-08-13T10:44:04Z</time>
      </trkpt>
      <trkpt lat="42.50639" lon="-0.13449">
        <ele>1026.8</ele>
        <time>2017-08-13T10:44:06Z</time>
      </trkpt>
      <trkpt lat="42.50639" lon="-0.13443">
        <ele>1027.1</ele>
        <time>2017-08-13T10:44:08Z</time>
      </trkpt>
      <trkpt lat="42.50637" lon="-0.13436">
        <ele>1027.1</ele>
        <time>2017-08-13T10:44:10Z</time>
      </trkpt>
      <trkpt lat="42.50635" lon="-0.1343">
        <ele>1027.1</ele>
        <time>2017-08-13T10:44:12Z</time>
      </trkpt>
      <trkpt lat="42.50634" lon="-0.13423">
        <ele>1027.7</ele>
        <time>2017-08-13T10:44:14Z</time>
      </trkpt>
      <trkpt lat="42.50634" lon="-0.13416">
        <ele>1028.1</ele>
        <time>2017-08-13T10:44:16Z</time>
      </trkpt>
      <trkpt lat="42.50632" lon="-0.13411">
        <ele>1028.3</ele>
        <time>2017-08-13T10:44:18Z</time>
      </trkpt>
      <trkpt lat="42.50629" lon="-0.13407">
        <ele>1027.8</ele>
        <time>2017-08-13T10:44:20Z</time>
      </trkpt>
      <trkpt lat="42.50624" lon="-0.13402">
        <ele>1027.4</ele>
        <time>2017-08-13T10:44:22Z</time>
      </trkpt>
      <trkpt lat="42.50621" lon="-0.134">
        <ele>1027.3</ele>
        <time>2017-08-13T10:44:23Z</time>
      </trkpt>
      <trkpt lat="42.50619" lon="-0.13398">
        <ele>1027.2</ele>
        <time>2017-08-13T10:44:24Z</time>
      </trkpt>
      <trkpt lat="42.50616" lon="-0.13397">
        <ele>1027.1</ele>
        <time>2017-08-13T10:44:25Z</time>
      </trkpt>
      <trkpt lat="42.50614" lon="-0.13395">
        <ele>1027.1</ele>
        <time>2017-08-13T10:44:26Z</time>
      </trkpt>
      <trkpt lat="42.50611" lon="-0.13393">
        <ele>1027</ele>
        <time>2017-08-13T10:44:27Z</time>
      </trkpt>
      <trkpt lat="42.50608" lon="-0.13392">
        <ele>1026.9</ele>
        <time>2017-08-13T10:44:28Z</time>
      </trkpt>
      <trkpt lat="42.50605" lon="-0.1339">
        <ele>1026.8</ele>
        <time>2017-08-13T10:44:29Z</time>
      </trkpt>
      <trkpt lat="42.50602" lon="-0.13388">
        <ele>1026.6</ele>
        <time>2017-08-13T10:44:30Z</time>
      </trkpt>
      <trkpt lat="42.506" lon="-0.13386">
        <ele>1026.5</ele>
        <time>2017-08-13T10:44:31Z</time>
      </trkpt>
      <trkpt lat="42.50597" lon="-0.13384">
        <ele>1026.6</ele>
        <time>2017-08-13T10:44:32Z</time>
      </trkpt>
      <trkpt lat="42.50595" lon="-0.13382">
        <ele>1027.2</ele>
        <time>2017-08-13T10:44:33Z</time>
      </trkpt>
      <trkpt lat="42.50592" lon="-0.1338">
        <ele>1027.8</ele>
        <time>2017-08-13T10:44:34Z</time>
      </trkpt>
      <trkpt lat="42.50589" lon="-0.13378">
        <ele>1028.1</ele>
        <time>2017-08-13T10:44:35Z</time>
      </trkpt>
      <trkpt lat="42.50587" lon="-0.13376">
        <ele>1028.4</ele>
        <time>2017-08-13T10:44:36Z</time>
      </trkpt>
      <trkpt lat="42.50584" lon="-0.13374">
        <ele>1028.6</ele>
        <time>2017-08-13T10:44:37Z</time>
      </trkpt>
      <trkpt lat="42.50582" lon="-0.13372">
        <ele>1028.8</ele>
        <time>2017-08-13T10:44:38Z</time>
      </trkpt>
      <trkpt lat="42.50579" lon="-0.1337">
        <ele>1029.1</ele>
        <time>2017-08-13T10:44:39Z</time>
      </trkpt>
      <trkpt lat="42.50577" lon="-0.13369">
        <ele>1029.3</ele>
        <time>2017-08-13T10:44:40Z</time>
      </trkpt>
      <trkpt lat="42.50572" lon="-0.13366">
        <ele>1029.7</ele>
        <time>2017-08-13T10:44:42Z</time>
      </trkpt>
      <trkpt lat="42.50569" lon="-0.13364">
        <ele>1030.3</ele>
        <time>2017-08-13T10:44:44Z</time>
      </trkpt>
      <trkpt lat="42.50565" lon="-0.13361">
        <ele>1031.2</ele>
        <time>2017-08-13T10:44:46Z</time>
      </trkpt>
      <trkpt lat="42.5056" lon="-0.13358">
        <ele>1031.5</ele>
        <time>2017-08-13T10:44:48Z</time>
      </trkpt>
      <trkpt lat="42.50558" lon="-0.13356">
        <ele>1031.6</ele>
        <time>2017-08-13T10:44:49Z</time>
      </trkpt>
      <trkpt lat="42.50553" lon="-0.13354">
        <ele>1031.6</ele>
        <time>2017-08-13T10:44:51Z</time>
      </trkpt>
      <trkpt lat="42.50549" lon="-0.13351">
        <ele>1031.6</ele>
        <time>2017-08-13T10:44:53Z</time>
      </trkpt>
      <trkpt lat="42.50545" lon="-0.13349">
        <ele>1031.9</ele>
        <time>2017-08-13T10:44:55Z</time>
      </trkpt>
      <trkpt lat="42.50541" lon="-0.13346">
        <ele>1032</ele>
        <time>2017-08-13T10:44:57Z</time>
      </trkpt>
      <trkpt lat="42.50539" lon="-0.13344">
        <ele>1031.9</ele>
        <time>2017-08-13T10:44:58Z</time>
      </trkpt>
      <trkpt lat="42.50536" lon="-0.13342">
        <ele>1031.8</ele>
        <time>2017-08-13T10:44:59Z</time>
      </trkpt>
      <trkpt lat="42.50532" lon="-0.13339">
        <ele>1031.8</ele>
        <time>2017-08-13T10:45:01Z</time>
      </trkpt>
      <trkpt lat="42.50527" lon="-0.13337">
        <ele>1031.8</ele>
        <time>2017-08-13T10:45:03Z</time>
      </trkpt>
      <trkpt lat="42.50524" lon="-0.13336">
        <ele>1031.7</ele>
        <time>2017-08-13T10:45:04Z</time>
      </trkpt>
      <trkpt lat="42.50521" lon="-0.13334">
        <ele>1031.6</ele>
        <time>2017-08-13T10:45:05Z</time>
      </trkpt>
      <trkpt lat="42.50518" lon="-0.13333">
        <ele>1031.7</ele>
        <time>2017-08-13T10:45:06Z</time>
      </trkpt>
      <trkpt lat="42.50515" lon="-0.13332">
        <ele>1032</ele>
        <time>2017-08-13T10:45:07Z</time>
      </trkpt>
      <trkpt lat="42.50512" lon="-0.1333">
        <ele>1032.3</ele>
        <time>2017-08-13T10:45:08Z</time>
      </trkpt>
      <trkpt lat="42.50509" lon="-0.13328">
        <ele>1032.3</ele>
        <time>2017-08-13T10:45:09Z</time>
      </trkpt>
      <trkpt lat="42.50506" lon="-0.13326">
        <ele>1032.3</ele>
        <time>2017-08-13T10:45:10Z</time>
      </trkpt>
      <trkpt lat="42.50503" lon="-0.13324">
        <ele>1032.3</ele>
        <time>2017-08-13T10:45:11Z</time>
      </trkpt>
      <trkpt lat="42.505" lon="-0.13322">
        <ele>1032.3</ele>
        <time>2017-08-13T10:45:12Z</time>
      </trkpt>
      <trkpt lat="42.50498" lon="-0.1332">
        <ele>1032.3</ele>
        <time>2017-08-13T10:45:13Z</time>
      </trkpt>
      <trkpt lat="42.50495" lon="-0.13317">
        <ele>1032.5</ele>
        <time>2017-08-13T10:45:14Z</time>
      </trkpt>
      <trkpt lat="42.50492" lon="-0.13314">
        <ele>1032.7</ele>
        <time>2017-08-13T10:45:15Z</time>
      </trkpt>
      <trkpt lat="42.50488" lon="-0.13312">
        <ele>1032.4</ele>
        <time>2017-08-13T10:45:16Z</time>
      </trkpt>
      <trkpt lat="42.50485" lon="-0.1331">
        <ele>1031.7</ele>
        <time>2017-08-13T10:45:17Z</time>
      </trkpt>
      <trkpt lat="42.50482" lon="-0.13308">
        <ele>1031.3</ele>
        <time>2017-08-13T10:45:18Z</time>
      </trkpt>
      <trkpt lat="42.50479" lon="-0.13307">
        <ele>1031.8</ele>
        <time>2017-08-13T10:45:19Z</time>
      </trkpt>
      <trkpt lat="42.50476" lon="-0.13306">
        <ele>1032.3</ele>
        <time>2017-08-13T10:45:20Z</time>
      </trkpt>
      <trkpt lat="42.50473" lon="-0.13305">
        <ele>1032.2</ele>
        <time>2017-08-13T10:45:21Z</time>
      </trkpt>
      <trkpt lat="42.5047" lon="-0.13303">
        <ele>1032</ele>
        <time>2017-08-13T10:45:22Z</time>
      </trkpt>
      <trkpt lat="42.50467" lon="-0.13302">
        <ele>1032.5</ele>
        <time>2017-08-13T10:45:23Z</time>
      </trkpt>
      <trkpt lat="42.50464" lon="-0.13301">
        <ele>1033</ele>
        <time>2017-08-13T10:45:24Z</time>
      </trkpt>
      <trkpt lat="42.50461" lon="-0.13299">
        <ele>1032.9</ele>
        <time>2017-08-13T10:45:25Z</time>
      </trkpt>
      <trkpt lat="42.50459" lon="-0.13296">
        <ele>1032.4</ele>
        <time>2017-08-13T10:45:26Z</time>
      </trkpt>
      <trkpt lat="42.50456" lon="-0.13293">
        <ele>1032.1</ele>
        <time>2017-08-13T10:45:27Z</time>
      </trkpt>
      <trkpt lat="42.50454" lon="-0.13291">
        <ele>1032.2</ele>
        <time>2017-08-13T10:45:28Z</time>
      </trkpt>
      <trkpt lat="42.50451" lon="-0.13289">
        <ele>1032.2</ele>
        <time>2017-08-13T10:45:29Z</time>
      </trkpt>
      <trkpt lat="42.50448" lon="-0.13287">
        <ele>1032.3</ele>
        <time>2017-08-13T10:45:30Z</time>
      </trkpt>
      <trkpt lat="42.50446" lon="-0.13286">
        <ele>1032.4</ele>
        <time>2017-08-13T10:45:31Z</time>
      </trkpt>
      <trkpt lat="42.50443" lon="-0.13285">
        <ele>1032.5</ele>
        <time>2017-08-13T10:45:32Z</time>
      </trkpt>
      <trkpt lat="42.5044" lon="-0.13283">
        <ele>1032.6</ele>
        <time>2017-08-13T10:45:33Z</time>
      </trkpt>
      <trkpt lat="42.50437" lon="-0.13282">
        <ele>1032.6</ele>
        <time>2017-08-13T10:45:34Z</time>
      </trkpt>
      <trkpt lat="42.50433" lon="-0.13282">
        <ele>1032.7</ele>
        <time>2017-08-13T10:45:35Z</time>
      </trkpt>
      <trkpt lat="42.5043" lon="-0.13281">
        <ele>1032.9</ele>
        <time>2017-08-13T10:45:36Z</time>
      </trkpt>
      <trkpt lat="42.50426" lon="-0.1328">
        <ele>1032.9</ele>
        <time>2017-08-13T10:45:37Z</time>
      </trkpt>
      <trkpt lat="42.50423" lon="-0.13279">
        <ele>1033</ele>
        <time>2017-08-13T10:45:38Z</time>
      </trkpt>
      <trkpt lat="42.5042" lon="-0.13278">
        <ele>1033</ele>
        <time>2017-08-13T10:45:39Z</time>
      </trkpt>
      <trkpt lat="42.50417" lon="-0.13277">
        <ele>1032.6</ele>
        <time>2017-08-13T10:45:40Z</time>
      </trkpt>
      <trkpt lat="42.50413" lon="-0.13275">
        <ele>1032.3</ele>
        <time>2017-08-13T10:45:41Z</time>
      </trkpt>
      <trkpt lat="42.5041" lon="-0.13274">
        <ele>1032.7</ele>
        <time>2017-08-13T10:45:42Z</time>
      </trkpt>
      <trkpt lat="42.50407" lon="-0.13272">
        <ele>1033.1</ele>
        <time>2017-08-13T10:45:43Z</time>
      </trkpt>
      <trkpt lat="42.50404" lon="-0.1327">
        <ele>1033.3</ele>
        <time>2017-08-13T10:45:44Z</time>
      </trkpt>
      <trkpt lat="42.504" lon="-0.13268">
        <ele>1033.3</ele>
        <time>2017-08-13T10:45:45Z</time>
      </trkpt>
      <trkpt lat="42.50397" lon="-0.13266">
        <ele>1033.4</ele>
        <time>2017-08-13T10:45:46Z</time>
      </trkpt>
      <trkpt lat="42.50394" lon="-0.13264">
        <ele>1033.5</ele>
        <time>2017-08-13T10:45:47Z</time>
      </trkpt>
      <trkpt lat="42.50392" lon="-0.13262">
        <ele>1033.6</ele>
        <time>2017-08-13T10:45:48Z</time>
      </trkpt>
      <trkpt lat="42.50389" lon="-0.13259">
        <ele>1034</ele>
        <time>2017-08-13T10:45:49Z</time>
      </trkpt>
      <trkpt lat="42.50386" lon="-0.13256">
        <ele>1034.3</ele>
        <time>2017-08-13T10:45:50Z</time>
      </trkpt>
      <trkpt lat="42.50383" lon="-0.13253">
        <ele>1034.5</ele>
        <time>2017-08-13T10:45:51Z</time>
      </trkpt>
      <trkpt lat="42.50381" lon="-0.1325">
        <ele>1034.7</ele>
        <time>2017-08-13T10:45:52Z</time>
      </trkpt>
      <trkpt lat="42.50378" lon="-0.13248">
        <ele>1034.8</ele>
        <time>2017-08-13T10:45:53Z</time>
      </trkpt>
      <trkpt lat="42.50375" lon="-0.13246">
        <ele>1034.9</ele>
        <time>2017-08-13T10:45:54Z</time>
      </trkpt>
      <trkpt lat="42.50373" lon="-0.13244">
        <ele>1035</ele>
        <time>2017-08-13T10:45:55Z</time>
      </trkpt>
      <trkpt lat="42.5037" lon="-0.13242">
        <ele>1035.2</ele>
        <time>2017-08-13T10:45:56Z</time>
      </trkpt>
      <trkpt lat="42.50367" lon="-0.13241">
        <ele>1035.4</ele>
        <time>2017-08-13T10:45:57Z</time>
      </trkpt>
      <trkpt lat="42.50365" lon="-0.1324">
        <ele>1035.3</ele>
        <time>2017-08-13T10:45:58Z</time>
      </trkpt>
      <trkpt lat="42.50362" lon="-0.13239">
        <ele>1035.2</ele>
        <time>2017-08-13T10:45:59Z</time>
      </trkpt>
      <trkpt lat="42.50359" lon="-0.13238">
        <ele>1035.3</ele>
        <time>2017-08-13T10:46:00Z</time>
      </trkpt>
      <trkpt lat="42.50355" lon="-0.13237">
        <ele>1035.8</ele>
        <time>2017-08-13T10:46:01Z</time>
      </trkpt>
      <trkpt lat="42.50352" lon="-0.13236">
        <ele>1036.1</ele>
        <time>2017-08-13T10:46:02Z</time>
      </trkpt>
      <trkpt lat="42.50349" lon="-0.13234">
        <ele>1036.3</ele>
        <time>2017-08-13T10:46:03Z</time>
      </trkpt>
      <trkpt lat="42.50346" lon="-0.13232">
        <ele>1036.5</ele>
        <time>2017-08-13T10:46:04Z</time>
      </trkpt>
      <trkpt lat="42.50343" lon="-0.13231">
        <ele>1036.7</ele>
        <time>2017-08-13T10:46:05Z</time>
      </trkpt>
      <trkpt lat="42.5034" lon="-0.13228">
        <ele>1037</ele>
        <time>2017-08-13T10:46:06Z</time>
      </trkpt>
      <trkpt lat="42.50336" lon="-0.13226">
        <ele>1037.3</ele>
        <time>2017-08-13T10:46:07Z</time>
      </trkpt>
      <trkpt lat="42.50333" lon="-0.13224">
        <ele>1037.6</ele>
        <time>2017-08-13T10:46:08Z</time>
      </trkpt>
      <trkpt lat="42.5033" lon="-0.13222">
        <ele>1037.4</ele>
        <time>2017-08-13T10:46:09Z</time>
      </trkpt>
      <trkpt lat="42.50328" lon="-0.13219">
        <ele>1037.3</ele>
        <time>2017-08-13T10:46:10Z</time>
      </trkpt>
      <trkpt lat="42.50326" lon="-0.13215">
        <ele>1037.3</ele>
        <time>2017-08-13T10:46:11Z</time>
      </trkpt>
      <trkpt lat="42.50324" lon="-0.13212">
        <ele>1037.5</ele>
        <time>2017-08-13T10:46:12Z</time>
      </trkpt>
      <trkpt lat="42.50322" lon="-0.13209">
        <ele>1037.6</ele>
        <time>2017-08-13T10:46:13Z</time>
      </trkpt>
      <trkpt lat="42.5032" lon="-0.13206">
        <ele>1037.5</ele>
        <time>2017-08-13T10:46:14Z</time>
      </trkpt>
      <trkpt lat="42.50317" lon="-0.13204">
        <ele>1037.4</ele>
        <time>2017-08-13T10:46:15Z</time>
      </trkpt>
      <trkpt lat="42.50314" lon="-0.13202">
        <ele>1037.3</ele>
        <time>2017-08-13T10:46:16Z</time>
      </trkpt>
      <trkpt lat="42.50311" lon="-0.132">
        <ele>1037.2</ele>
        <time>2017-08-13T10:46:17Z</time>
      </trkpt>
      <trkpt lat="42.50308" lon="-0.13199">
        <ele>1037.3</ele>
        <time>2017-08-13T10:46:18Z</time>
      </trkpt>
      <trkpt lat="42.50305" lon="-0.13197">
        <ele>1037.4</ele>
        <time>2017-08-13T10:46:19Z</time>
      </trkpt>
      <trkpt lat="42.50302" lon="-0.13194">
        <ele>1037</ele>
        <time>2017-08-13T10:46:20Z</time>
      </trkpt>
      <trkpt lat="42.503" lon="-0.13192">
        <ele>1036.4</ele>
        <time>2017-08-13T10:46:21Z</time>
      </trkpt>
      <trkpt lat="42.50297" lon="-0.13189">
        <ele>1036</ele>
        <time>2017-08-13T10:46:22Z</time>
      </trkpt>
      <trkpt lat="42.50294" lon="-0.13187">
        <ele>1036</ele>
        <time>2017-08-13T10:46:23Z</time>
      </trkpt>
      <trkpt lat="42.50291" lon="-0.13185">
        <ele>1035.5</ele>
        <time>2017-08-13T10:46:24Z</time>
      </trkpt>
      <trkpt lat="42.50289" lon="-0.13185">
        <ele>1035</ele>
        <time>2017-08-13T10:46:25Z</time>
      </trkpt>
      <trkpt lat="42.50286" lon="-0.13185">
        <ele>1034.7</ele>
        <time>2017-08-13T10:46:26Z</time>
      </trkpt>
      <trkpt lat="42.50283" lon="-0.13186">
        <ele>1034.5</ele>
        <time>2017-08-13T10:46:27Z</time>
      </trkpt>
      <trkpt lat="42.50281" lon="-0.13188">
        <ele>1034.4</ele>
        <time>2017-08-13T10:46:28Z</time>
      </trkpt>
      <trkpt lat="42.50277" lon="-0.13194">
        <ele>1034.9</ele>
        <time>2017-08-13T10:46:30Z</time>
      </trkpt>
      <trkpt lat="42.50274" lon="-0.132">
        <ele>1034.7</ele>
        <time>2017-08-13T10:46:32Z</time>
      </trkpt>
      <trkpt lat="42.50273" lon="-0.13207">
        <ele>1035.2</ele>
        <time>2017-08-13T10:46:34Z</time>
      </trkpt>
      <trkpt lat="42.50272" lon="-0.13213">
        <ele>1036.1</ele>
        <time>2017-08-13T10:46:36Z</time>
      </trkpt>
      <trkpt lat="42.50273" lon="-0.13219">
        <ele>1037</ele>
        <time>2017-08-13T10:46:38Z</time>
      </trkpt>
      <trkpt lat="42.5027" lon="-0.13222">
        <ele>1037.9</ele>
        <time>2017-08-13T10:47:44Z</time>
      </trkpt>
      <trkpt lat="42.50266" lon="-0.13225">
        <ele>1038.5</ele>
        <time>2017-08-13T10:47:46Z</time>
      </trkpt>
      <trkpt lat="42.50263" lon="-0.13227">
        <ele>1038.6</ele>
        <time>2017-08-13T10:47:47Z</time>
      </trkpt>
      <trkpt lat="42.50261" lon="-0.1323">
        <ele>1038.6</ele>
        <time>2017-08-13T10:47:48Z</time>
      </trkpt>
      <trkpt lat="42.50258" lon="-0.13236">
        <ele>1039.2</ele>
        <time>2017-08-13T10:47:50Z</time>
      </trkpt>
      <trkpt lat="42.50257" lon="-0.13242">
        <ele>1039.9</ele>
        <time>2017-08-13T10:47:52Z</time>
      </trkpt>
      <trkpt lat="42.50255" lon="-0.13249">
        <ele>1040.5</ele>
        <time>2017-08-13T10:47:54Z</time>
      </trkpt>
      <trkpt lat="42.50253" lon="-0.13254">
        <ele>1041</ele>
        <time>2017-08-13T10:47:56Z</time>
      </trkpt>
      <trkpt lat="42.5025" lon="-0.13257">
        <ele>1041.5</ele>
        <time>2017-08-13T10:47:58Z</time>
      </trkpt>
      <trkpt lat="42.50247" lon="-0.13261">
        <ele>1042</ele>
        <time>2017-08-13T10:48:00Z</time>
      </trkpt>
      <trkpt lat="42.50245" lon="-0.13266">
        <ele>1042.5</ele>
        <time>2017-08-13T10:48:02Z</time>
      </trkpt>
      <trkpt lat="42.50242" lon="-0.13271">
        <ele>1041.4</ele>
        <time>2017-08-13T10:48:04Z</time>
      </trkpt>
      <trkpt lat="42.5024" lon="-0.13277">
        <ele>1040.3</ele>
        <time>2017-08-13T10:48:06Z</time>
      </trkpt>
      <trkpt lat="42.50238" lon="-0.13281">
        <ele>1039.2</ele>
        <time>2017-08-13T10:48:07Z</time>
      </trkpt>
      <trkpt lat="42.50236" lon="-0.13284">
        <ele>1039.9</ele>
        <time>2017-08-13T10:48:08Z</time>
      </trkpt>
      <trkpt lat="42.50234" lon="-0.13288">
        <ele>1038.7</ele>
        <time>2017-08-13T10:48:10Z</time>
      </trkpt>
      <trkpt lat="42.50233" lon="-0.13293">
        <ele>1039.4</ele>
        <time>2017-08-13T10:48:12Z</time>
      </trkpt>
      <trkpt lat="42.50233" lon="-0.13297">
        <ele>1040.1</ele>
        <time>2017-08-13T10:48:14Z</time>
      </trkpt>
      <trkpt lat="42.50231" lon="-0.13302">
        <ele>1038.7</ele>
        <time>2017-08-13T10:48:17Z</time>
      </trkpt>
      <trkpt lat="42.5023" lon="-0.13306">
        <ele>1039.2</ele>
        <time>2017-08-13T10:48:19Z</time>
      </trkpt>
      <trkpt lat="42.50228" lon="-0.13312">
        <ele>1037.8</ele>
        <time>2017-08-13T10:48:21Z</time>
      </trkpt>
      <trkpt lat="42.50225" lon="-0.13317">
        <ele>1037.3</ele>
        <time>2017-08-13T10:48:23Z</time>
      </trkpt>
      <trkpt lat="42.50224" lon="-0.1332">
        <ele>1037.3</ele>
        <time>2017-08-13T10:48:25Z</time>
      </trkpt>
      <trkpt lat="42.50222" lon="-0.13325">
        <ele>1036.3</ele>
        <time>2017-08-13T10:48:27Z</time>
      </trkpt>
      <trkpt lat="42.50221" lon="-0.13329">
        <ele>1036.9</ele>
        <time>2017-08-13T10:48:29Z</time>
      </trkpt>
      <trkpt lat="42.5022" lon="-0.13334">
        <ele>1037.9</ele>
        <time>2017-08-13T10:48:32Z</time>
      </trkpt>
      <trkpt lat="42.50216" lon="-0.13338">
        <ele>1033.9</ele>
        <time>2017-08-13T10:49:03Z</time>
      </trkpt>
      <trkpt lat="42.50214" lon="-0.13341">
        <ele>1034.3</ele>
        <time>2017-08-13T10:49:17Z</time>
      </trkpt>
      <trkpt lat="42.50213" lon="-0.13344">
        <ele>1032.6</ele>
        <time>2017-08-13T10:49:29Z</time>
      </trkpt>
      <trkpt lat="42.50206" lon="-0.1336">
        <ele>1030</ele>
        <time>2017-08-13T10:50:17Z</time>
      </trkpt>
      <trkpt lat="42.50204" lon="-0.13363">
        <ele>1030</ele>
        <time>2017-08-13T10:50:19Z</time>
      </trkpt>
      <trkpt lat="42.50202" lon="-0.13367">
        <ele>1028.4</ele>
        <time>2017-08-13T10:50:21Z</time>
      </trkpt>
      <trkpt lat="42.502" lon="-0.13372">
        <ele>1027.1</ele>
        <time>2017-08-13T10:50:23Z</time>
      </trkpt>
      <trkpt lat="42.50198" lon="-0.13376">
        <ele>1027.9</ele>
        <time>2017-08-13T10:50:25Z</time>
      </trkpt>
      <trkpt lat="42.50196" lon="-0.1338">
        <ele>1027.1</ele>
        <time>2017-08-13T10:50:27Z</time>
      </trkpt>
      <trkpt lat="42.50194" lon="-0.13383">
        <ele>1026.4</ele>
        <time>2017-08-13T10:50:29Z</time>
      </trkpt>
      <trkpt lat="42.50191" lon="-0.13385">
        <ele>1026.4</ele>
        <time>2017-08-13T10:50:34Z</time>
      </trkpt>
      <trkpt lat="42.50189" lon="-0.13388">
        <ele>1025.5</ele>
        <time>2017-08-13T10:50:40Z</time>
      </trkpt>
      <trkpt lat="42.50187" lon="-0.1339">
        <ele>1024.4</ele>
        <time>2017-08-13T10:50:46Z</time>
      </trkpt>
      <trkpt lat="42.50186" lon="-0.13394">
        <ele>1025.1</ele>
        <time>2017-08-13T10:50:50Z</time>
      </trkpt>
      <trkpt lat="42.50185" lon="-0.13398">
        <ele>1023.4</ele>
        <time>2017-08-13T10:50:54Z</time>
      </trkpt>
      <trkpt lat="42.50183" lon="-0.13402">
        <ele>1024.2</ele>
        <time>2017-08-13T10:50:59Z</time>
      </trkpt>
      <trkpt lat="42.50182" lon="-0.13405">
        <ele>1025</ele>
        <time>2017-08-13T10:51:07Z</time>
      </trkpt>
      <trkpt lat="42.50179" lon="-0.13407">
        <ele>1024.4</ele>
        <time>2017-08-13T10:51:09Z</time>
      </trkpt>
      <trkpt lat="42.50175" lon="-0.13409">
        <ele>1021.7</ele>
        <time>2017-08-13T10:51:11Z</time>
      </trkpt>
      <trkpt lat="42.50171" lon="-0.1341">
        <ele>1020.4</ele>
        <time>2017-08-13T10:51:13Z</time>
      </trkpt>
      <trkpt lat="42.50168" lon="-0.13411">
        <ele>1020.4</ele>
        <time>2017-08-13T10:51:15Z</time>
      </trkpt>
      <trkpt lat="42.50165" lon="-0.13407">
        <ele>1018</ele>
        <time>2017-08-13T10:51:18Z</time>
      </trkpt>
      <trkpt lat="42.50163" lon="-0.13402">
        <ele>1015.5</ele>
        <time>2017-08-13T10:51:20Z</time>
      </trkpt>
      <trkpt lat="42.50162" lon="-0.13397">
        <ele>1012.9</ele>
        <time>2017-08-13T10:51:22Z</time>
      </trkpt>
      <trkpt lat="42.50159" lon="-0.13392">
        <ele>1010.2</ele>
        <time>2017-08-13T10:52:29Z</time>
      </trkpt>
      <trkpt lat="42.50156" lon="-0.13393">
        <ele>1008.5</ele>
        <time>2017-08-13T10:52:43Z</time>
      </trkpt>
      <trkpt lat="42.50153" lon="-0.13393">
        <ele>1006.8</ele>
        <time>2017-08-13T10:52:45Z</time>
      </trkpt>
      <trkpt lat="42.50149" lon="-0.13394">
        <ele>1005.2</ele>
        <time>2017-08-13T10:52:47Z</time>
      </trkpt>
      <trkpt lat="42.50146" lon="-0.13392">
        <ele>1003.7</ele>
        <time>2017-08-13T10:52:49Z</time>
      </trkpt>
      <trkpt lat="42.50142" lon="-0.1339">
        <ele>1002.4</ele>
        <time>2017-08-13T10:52:51Z</time>
      </trkpt>
      <trkpt lat="42.50139" lon="-0.13389">
        <ele>1000.6</ele>
        <time>2017-08-13T10:52:53Z</time>
      </trkpt>
      <trkpt lat="42.50135" lon="-0.13391">
        <ele>1000.1</ele>
        <time>2017-08-13T10:52:55Z</time>
      </trkpt>
      <trkpt lat="42.50132" lon="-0.13393">
        <ele>999</ele>
        <time>2017-08-13T10:52:56Z</time>
      </trkpt>
      <trkpt lat="42.50129" lon="-0.13394">
        <ele>998.9</ele>
        <time>2017-08-13T10:52:57Z</time>
      </trkpt>
      <trkpt lat="42.50127" lon="-0.13396">
        <ele>997.8</ele>
        <time>2017-08-13T10:52:58Z</time>
      </trkpt>
      <trkpt lat="42.50124" lon="-0.13399">
        <ele>998</ele>
        <time>2017-08-13T10:52:59Z</time>
      </trkpt>
      <trkpt lat="42.50122" lon="-0.13401">
        <ele>997.9</ele>
        <time>2017-08-13T10:53:00Z</time>
      </trkpt>
      <trkpt lat="42.50117" lon="-0.13405">
        <ele>997.5</ele>
        <time>2017-08-13T10:53:02Z</time>
      </trkpt>
      <trkpt lat="42.50113" lon="-0.13409">
        <ele>998.1</ele>
        <time>2017-08-13T10:53:04Z</time>
      </trkpt>
      <trkpt lat="42.50109" lon="-0.13413">
        <ele>998.6</ele>
        <time>2017-08-13T10:53:06Z</time>
      </trkpt>
      <trkpt lat="42.50104" lon="-0.13415">
        <ele>996.6</ele>
        <time>2017-08-13T10:53:08Z</time>
      </trkpt>
      <trkpt lat="42.501" lon="-0.13414">
        <ele>995.4</ele>
        <time>2017-08-13T10:53:10Z</time>
      </trkpt>
      <trkpt lat="42.50097" lon="-0.13412">
        <ele>994.1</ele>
        <time>2017-08-13T10:53:12Z</time>
      </trkpt>
      <trkpt lat="42.50094" lon="-0.1341">
        <ele>991.7</ele>
        <time>2017-08-13T10:53:26Z</time>
      </trkpt>
      <trkpt lat="42.50092" lon="-0.13407">
        <ele>990.5</ele>
        <time>2017-08-13T10:53:32Z</time>
      </trkpt>
      <trkpt lat="42.50092" lon="-0.13403">
        <ele>989.2</ele>
        <time>2017-08-13T10:53:37Z</time>
      </trkpt>
      <trkpt lat="42.50096" lon="-0.134">
        <ele>989.1</ele>
        <time>2017-08-13T10:53:39Z</time>
      </trkpt>
      <trkpt lat="42.50099" lon="-0.13398">
        <ele>989</ele>
        <time>2017-08-13T10:53:41Z</time>
      </trkpt>
      <trkpt lat="42.501" lon="-0.13393">
        <ele>989</ele>
        <time>2017-08-13T10:53:43Z</time>
      </trkpt>
      <trkpt lat="42.50096" lon="-0.13389">
        <ele>986</ele>
        <time>2017-08-13T10:53:45Z</time>
      </trkpt>
      <trkpt lat="42.50093" lon="-0.13387">
        <ele>986</ele>
        <time>2017-08-13T10:53:46Z</time>
      </trkpt>
      <trkpt lat="42.50089" lon="-0.13384">
        <ele>983.3</ele>
        <time>2017-08-13T10:53:48Z</time>
      </trkpt>
      <trkpt lat="42.50084" lon="-0.13382">
        <ele>982.6</ele>
        <time>2017-08-13T10:53:50Z</time>
      </trkpt>
      <trkpt lat="42.5008" lon="-0.13379">
        <ele>981.2</ele>
        <time>2017-08-13T10:53:52Z</time>
      </trkpt>
      <trkpt lat="42.50081" lon="-0.13375">
        <ele>980.3</ele>
        <time>2017-08-13T10:53:55Z</time>
      </trkpt>
      <trkpt lat="42.50085" lon="-0.13372">
        <ele>980.1</ele>
        <time>2017-08-13T10:53:57Z</time>
      </trkpt>
      <trkpt lat="42.50088" lon="-0.13368">
        <ele>980</ele>
        <time>2017-08-13T10:53:59Z</time>
      </trkpt>
      <trkpt lat="42.50088" lon="-0.13362">
        <ele>979.3</ele>
        <time>2017-08-13T10:54:01Z</time>
      </trkpt>
      <trkpt lat="42.50083" lon="-0.1336">
        <ele>978</ele>
        <time>2017-08-13T10:54:03Z</time>
      </trkpt>
      <trkpt lat="42.50079" lon="-0.1336">
        <ele>977.4</ele>
        <time>2017-08-13T10:54:04Z</time>
      </trkpt>
      <trkpt lat="42.50076" lon="-0.1336">
        <ele>976.7</ele>
        <time>2017-08-13T10:54:05Z</time>
      </trkpt>
      <trkpt lat="42.50071" lon="-0.13359">
        <ele>975.4</ele>
        <time>2017-08-13T10:54:07Z</time>
      </trkpt>
      <trkpt lat="42.50069" lon="-0.13355">
        <ele>974.7</ele>
        <time>2017-08-13T10:54:09Z</time>
      </trkpt>
      <trkpt lat="42.50068" lon="-0.13351">
        <ele>974</ele>
        <time>2017-08-13T10:54:11Z</time>
      </trkpt>
      <trkpt lat="42.50063" lon="-0.13351">
        <ele>972.7</ele>
        <time>2017-08-13T10:54:14Z</time>
      </trkpt>
      <trkpt lat="42.5006" lon="-0.13354">
        <ele>972</ele>
        <time>2017-08-13T10:54:16Z</time>
      </trkpt>
      <trkpt lat="42.50057" lon="-0.13356">
        <ele>971.9</ele>
        <time>2017-08-13T10:54:18Z</time>
      </trkpt>
      <trkpt lat="42.50054" lon="-0.13359">
        <ele>971.2</ele>
        <time>2017-08-13T10:54:20Z</time>
      </trkpt>
      <trkpt lat="42.50051" lon="-0.13358">
        <ele>970.4</ele>
        <time>2017-08-13T10:54:23Z</time>
      </trkpt>
      <trkpt lat="42.50051" lon="-0.13352">
        <ele>969.9</ele>
        <time>2017-08-13T10:54:26Z</time>
      </trkpt>
      <trkpt lat="42.50052" lon="-0.13346">
        <ele>969.5</ele>
        <time>2017-08-13T10:54:28Z</time>
      </trkpt>
      <trkpt lat="42.50051" lon="-0.13342">
        <ele>968</ele>
        <time>2017-08-13T10:54:30Z</time>
      </trkpt>
      <trkpt lat="42.50051" lon="-0.13337">
        <ele>967.3</ele>
        <time>2017-08-13T10:54:33Z</time>
      </trkpt>
      <trkpt lat="42.50053" lon="-0.13334">
        <ele>968</ele>
        <time>2017-08-13T10:54:35Z</time>
      </trkpt>
      <trkpt lat="42.50053" lon="-0.13329">
        <ele>966.1</ele>
        <time>2017-08-13T10:54:38Z</time>
      </trkpt>
      <trkpt lat="42.50053" lon="-0.13324">
        <ele>964.9</ele>
        <time>2017-08-13T10:54:41Z</time>
      </trkpt>
      <trkpt lat="42.50055" lon="-0.13321">
        <ele>965.4</ele>
        <time>2017-08-13T10:54:43Z</time>
      </trkpt>
      <trkpt lat="42.50058" lon="-0.13318">
        <ele>964</ele>
        <time>2017-08-13T10:54:45Z</time>
      </trkpt>
      <trkpt lat="42.5006" lon="-0.13316">
        <ele>963</ele>
        <time>2017-08-13T10:54:47Z</time>
      </trkpt>
      <trkpt lat="42.50061" lon="-0.13312">
        <ele>961.6</ele>
        <time>2017-08-13T10:54:51Z</time>
      </trkpt>
      <trkpt lat="42.50057" lon="-0.13311">
        <ele>961.2</ele>
        <time>2017-08-13T10:54:53Z</time>
      </trkpt>
      <trkpt lat="42.50053" lon="-0.1331">
        <ele>960.7</ele>
        <time>2017-08-13T10:54:55Z</time>
      </trkpt>
      <trkpt lat="42.5005" lon="-0.13308">
        <ele>960.2</ele>
        <time>2017-08-13T10:54:57Z</time>
      </trkpt>
      <trkpt lat="42.50046" lon="-0.13307">
        <ele>958.4</ele>
        <time>2017-08-13T10:54:59Z</time>
      </trkpt>
      <trkpt lat="42.50042" lon="-0.13305">
        <ele>956.9</ele>
        <time>2017-08-13T10:55:01Z</time>
      </trkpt>
      <trkpt lat="42.50038" lon="-0.13304">
        <ele>956.1</ele>
        <time>2017-08-13T10:55:03Z</time>
      </trkpt>
      <trkpt lat="42.50034" lon="-0.13304">
        <ele>954.5</ele>
        <time>2017-08-13T10:55:05Z</time>
      </trkpt>
      <trkpt lat="42.50032" lon="-0.13304">
        <ele>954.5</ele>
        <time>2017-08-13T10:55:22Z</time>
      </trkpt>
      <trkpt lat="42.5003" lon="-0.13301">
        <ele>953.7</ele>
        <time>2017-08-13T10:55:30Z</time>
      </trkpt>
      <trkpt lat="42.5003" lon="-0.13296">
        <ele>952.8</ele>
        <time>2017-08-13T10:55:35Z</time>
      </trkpt>
      <trkpt lat="42.50033" lon="-0.13294">
        <ele>952.4</ele>
        <time>2017-08-13T10:55:37Z</time>
      </trkpt>
      <trkpt lat="42.50036" lon="-0.13292">
        <ele>953.1</ele>
        <time>2017-08-13T10:55:40Z</time>
      </trkpt>
      <trkpt lat="42.50039" lon="-0.1329">
        <ele>952.8</ele>
        <time>2017-08-13T10:55:42Z</time>
      </trkpt>
      <trkpt lat="42.50043" lon="-0.13287">
        <ele>953.5</ele>
        <time>2017-08-13T10:55:44Z</time>
      </trkpt>
      <trkpt lat="42.50046" lon="-0.13285">
        <ele>953.2</ele>
        <time>2017-08-13T10:55:46Z</time>
      </trkpt>
      <trkpt lat="42.50049" lon="-0.13283">
        <ele>953.8</ele>
        <time>2017-08-13T10:55:48Z</time>
      </trkpt>
      <trkpt lat="42.50052" lon="-0.13281">
        <ele>953.6</ele>
        <time>2017-08-13T10:55:50Z</time>
      </trkpt>
      <trkpt lat="42.50053" lon="-0.13278">
        <ele>952.8</ele>
        <time>2017-08-13T10:55:52Z</time>
      </trkpt>
      <trkpt lat="42.50052" lon="-0.13274">
        <ele>952</ele>
        <time>2017-08-13T10:55:54Z</time>
      </trkpt>
      <trkpt lat="42.50049" lon="-0.1327">
        <ele>951.4</ele>
        <time>2017-08-13T10:55:56Z</time>
      </trkpt>
      <trkpt lat="42.50046" lon="-0.13268">
        <ele>949.7</ele>
        <time>2017-08-13T10:55:57Z</time>
      </trkpt>
      <trkpt lat="42.50044" lon="-0.13265">
        <ele>948</ele>
        <time>2017-08-13T10:55:58Z</time>
      </trkpt>
      <trkpt lat="42.50041" lon="-0.13263">
        <ele>947.1</ele>
        <time>2017-08-13T10:55:59Z</time>
      </trkpt>
      <trkpt lat="42.50037" lon="-0.13261">
        <ele>946.2</ele>
        <time>2017-08-13T10:56:01Z</time>
      </trkpt>
      <trkpt lat="42.50032" lon="-0.13261">
        <ele>944.8</ele>
        <time>2017-08-13T10:56:03Z</time>
      </trkpt>
      <trkpt lat="42.50029" lon="-0.1326">
        <ele>943.1</ele>
        <time>2017-08-13T10:56:05Z</time>
      </trkpt>
      <trkpt lat="42.50027" lon="-0.13259">
        <ele>943.1</ele>
        <time>2017-08-13T10:56:08Z</time>
      </trkpt>
      <trkpt lat="42.50023" lon="-0.13257">
        <ele>941.9</ele>
        <time>2017-08-13T10:56:11Z</time>
      </trkpt>
      <trkpt lat="42.50019" lon="-0.13254">
        <ele>940.3</ele>
        <time>2017-08-13T10:56:13Z</time>
      </trkpt>
      <trkpt lat="42.50016" lon="-0.13252">
        <ele>938.9</ele>
        <time>2017-08-13T10:56:14Z</time>
      </trkpt>
      <trkpt lat="42.50014" lon="-0.13249">
        <ele>938.2</ele>
        <time>2017-08-13T10:56:15Z</time>
      </trkpt>
      <trkpt lat="42.5001" lon="-0.13245">
        <ele>936.9</ele>
        <time>2017-08-13T10:56:16Z</time>
      </trkpt>
      <trkpt lat="42.50007" lon="-0.13241">
        <ele>935.7</ele>
        <time>2017-08-13T10:56:17Z</time>
      </trkpt>
      <trkpt lat="42.50003" lon="-0.13237">
        <ele>934.4</ele>
        <time>2017-08-13T10:56:18Z</time>
      </trkpt>
      <trkpt lat="42.5" lon="-0.13234">
        <ele>933.2</ele>
        <time>2017-08-13T10:56:19Z</time>
      </trkpt>
      <trkpt lat="42.49996" lon="-0.13231">
        <ele>932.7</ele>
        <time>2017-08-13T10:56:20Z</time>
      </trkpt>
      <trkpt lat="42.49993" lon="-0.13229">
        <ele>931.2</ele>
        <time>2017-08-13T10:56:21Z</time>
      </trkpt>
      <trkpt lat="42.49989" lon="-0.13227">
        <ele>929.5</ele>
        <time>2017-08-13T10:56:22Z</time>
      </trkpt>
      <trkpt lat="42.49986" lon="-0.13225">
        <ele>928.6</ele>
        <time>2017-08-13T10:56:23Z</time>
      </trkpt>
      <trkpt lat="42.49984" lon="-0.13223">
        <ele>927.7</ele>
        <time>2017-08-13T10:56:24Z</time>
      </trkpt>
      <trkpt lat="42.4998" lon="-0.1322">
        <ele>925.9</ele>
        <time>2017-08-13T10:56:26Z</time>
      </trkpt>
      <trkpt lat="42.49976" lon="-0.13216">
        <ele>924.1</ele>
        <time>2017-08-13T10:56:28Z</time>
      </trkpt>
      <trkpt lat="42.49973" lon="-0.13214">
        <ele>922.4</ele>
        <time>2017-08-13T10:56:29Z</time>
      </trkpt>
      <trkpt lat="42.49971" lon="-0.13211">
        <ele>921.7</ele>
        <time>2017-08-13T10:56:30Z</time>
      </trkpt>
      <trkpt lat="42.49968" lon="-0.13209">
        <ele>920.2</ele>
        <time>2017-08-13T10:56:31Z</time>
      </trkpt>
      <trkpt lat="42.49966" lon="-0.13207">
        <ele>919.5</ele>
        <time>2017-08-13T10:56:32Z</time>
      </trkpt>
      <trkpt lat="42.49961" lon="-0.13206">
        <ele>918.7</ele>
        <time>2017-08-13T10:56:34Z</time>
      </trkpt>
      <trkpt lat="42.49956" lon="-0.13208">
        <ele>917.2</ele>
        <time>2017-08-13T10:56:36Z</time>
      </trkpt>
      <trkpt lat="42.49954" lon="-0.1321">
        <ele>917.8</ele>
        <time>2017-08-13T10:56:37Z</time>
      </trkpt>
      <trkpt lat="42.49952" lon="-0.13212">
        <ele>917</ele>
        <time>2017-08-13T10:56:38Z</time>
      </trkpt>
      <trkpt lat="42.49949" lon="-0.13215">
        <ele>916.9</ele>
        <time>2017-08-13T10:56:39Z</time>
      </trkpt>
      <trkpt lat="42.49946" lon="-0.13217">
        <ele>916.3</ele>
        <time>2017-08-13T10:56:40Z</time>
      </trkpt>
      <trkpt lat="42.49944" lon="-0.13219">
        <ele>916.3</ele>
        <time>2017-08-13T10:56:41Z</time>
      </trkpt>
      <trkpt lat="42.49941" lon="-0.13221">
        <ele>916.3</ele>
        <time>2017-08-13T10:56:42Z</time>
      </trkpt>
      <trkpt lat="42.49939" lon="-0.13223">
        <ele>916.2</ele>
        <time>2017-08-13T10:56:43Z</time>
      </trkpt>
      <trkpt lat="42.49935" lon="-0.13227">
        <ele>915.6</ele>
        <time>2017-08-13T10:56:45Z</time>
      </trkpt>
      <trkpt lat="42.49932" lon="-0.13229">
        <ele>915.6</ele>
        <time>2017-08-13T10:56:47Z</time>
      </trkpt>
      <trkpt lat="42.4993" lon="-0.13231">
        <ele>915.7</ele>
        <time>2017-08-13T10:56:49Z</time>
      </trkpt>
      <trkpt lat="42.49927" lon="-0.13233">
        <ele>915</ele>
        <time>2017-08-13T10:56:51Z</time>
      </trkpt>
      <trkpt lat="42.49925" lon="-0.13235">
        <ele>915.2</ele>
        <time>2017-08-13T10:56:53Z</time>
      </trkpt>
      <trkpt lat="42.49922" lon="-0.13239">
        <ele>914.6</ele>
        <time>2017-08-13T10:56:55Z</time>
      </trkpt>
      <trkpt lat="42.49918" lon="-0.13244">
        <ele>915.4</ele>
        <time>2017-08-13T10:56:57Z</time>
      </trkpt>
      <trkpt lat="42.49914" lon="-0.1325">
        <ele>915.4</ele>
        <time>2017-08-13T10:56:59Z</time>
      </trkpt>
      <trkpt lat="42.49911" lon="-0.13252">
        <ele>914.9</ele>
        <time>2017-08-13T10:57:00Z</time>
      </trkpt>
      <trkpt lat="42.49908" lon="-0.13253">
        <ele>914.7</ele>
        <time>2017-08-13T10:57:01Z</time>
      </trkpt>
      <trkpt lat="42.49904" lon="-0.13253">
        <ele>914.2</ele>
        <time>2017-08-13T10:57:02Z</time>
      </trkpt>
      <trkpt lat="42.49902" lon="-0.13253">
        <ele>913.6</ele>
        <time>2017-08-13T10:57:03Z</time>
      </trkpt>
      <trkpt lat="42.49897" lon="-0.13253">
        <ele>913.1</ele>
        <time>2017-08-13T10:57:05Z</time>
      </trkpt>
      <trkpt lat="42.49892" lon="-0.13254">
        <ele>912.1</ele>
        <time>2017-08-13T10:57:07Z</time>
      </trkpt>
      <trkpt lat="42.49888" lon="-0.13257">
        <ele>911.7</ele>
        <time>2017-08-13T10:57:09Z</time>
      </trkpt>
      <trkpt lat="42.49885" lon="-0.13259">
        <ele>911.3</ele>
        <time>2017-08-13T10:57:11Z</time>
      </trkpt>
      <trkpt lat="42.49883" lon="-0.13262">
        <ele>910.7</ele>
        <time>2017-08-13T10:57:13Z</time>
      </trkpt>
      <trkpt lat="42.49886" lon="-0.13261">
        <ele>911.2</ele>
        <time>2017-08-13T10:57:40Z</time>
      </trkpt>
      <trkpt lat="42.4989" lon="-0.13258">
        <ele>911.7</ele>
        <time>2017-08-13T10:57:42Z</time>
      </trkpt>
      <trkpt lat="42.49894" lon="-0.13254">
        <ele>912.5</ele>
        <time>2017-08-13T10:57:44Z</time>
      </trkpt>
      <trkpt lat="42.49899" lon="-0.13252">
        <ele>912.8</ele>
        <time>2017-08-13T10:57:46Z</time>
      </trkpt>
      <trkpt lat="42.49904" lon="-0.13251">
        <ele>913.7</ele>
        <time>2017-08-13T10:57:48Z</time>
      </trkpt>
      <trkpt lat="42.49909" lon="-0.13252">
        <ele>914.7</ele>
        <time>2017-08-13T10:57:50Z</time>
      </trkpt>
      <trkpt lat="42.49914" lon="-0.13252">
        <ele>915.1</ele>
        <time>2017-08-13T10:57:52Z</time>
      </trkpt>
      <trkpt lat="42.49919" lon="-0.13251">
        <ele>916.1</ele>
        <time>2017-08-13T10:57:54Z</time>
      </trkpt>
      <trkpt lat="42.49923" lon="-0.13249">
        <ele>916.7</ele>
        <time>2017-08-13T10:57:56Z</time>
      </trkpt>
      <trkpt lat="42.49924" lon="-0.13244">
        <ele>916.1</ele>
        <time>2017-08-13T10:57:59Z</time>
      </trkpt>
      <trkpt lat="42.49925" lon="-0.13241">
        <ele>915.5</ele>
        <time>2017-08-13T10:58:05Z</time>
      </trkpt>
      <trkpt lat="42.49925" lon="-0.13233">
        <ele>914.6</ele>
        <time>2017-08-13T10:58:50Z</time>
      </trkpt>
      <trkpt lat="42.49925" lon="-0.13226">
        <ele>913.2</ele>
        <time>2017-08-13T10:58:52Z</time>
      </trkpt>
      <trkpt lat="42.49926" lon="-0.1322">
        <ele>912.6</ele>
        <time>2017-08-13T10:58:54Z</time>
      </trkpt>
      <trkpt lat="42.49927" lon="-0.13214">
        <ele>911.9</ele>
        <time>2017-08-13T10:58:56Z</time>
      </trkpt>
      <trkpt lat="42.4993" lon="-0.13208">
        <ele>911.1</ele>
        <time>2017-08-13T10:58:58Z</time>
      </trkpt>
      <trkpt lat="42.49933" lon="-0.13204">
        <ele>911.1</ele>
        <time>2017-08-13T10:59:00Z</time>
      </trkpt>
      <trkpt lat="42.49935" lon="-0.13199">
        <ele>911.2</ele>
        <time>2017-08-13T10:59:02Z</time>
      </trkpt>
      <trkpt lat="42.49938" lon="-0.13194">
        <ele>910.5</ele>
        <time>2017-08-13T10:59:04Z</time>
      </trkpt>
      <trkpt lat="42.4994" lon="-0.13189">
        <ele>910.4</ele>
        <time>2017-08-13T10:59:06Z</time>
      </trkpt>
      <trkpt lat="42.49942" lon="-0.13186">
        <ele>910.1</ele>
        <time>2017-08-13T10:59:08Z</time>
      </trkpt>
      <trkpt lat="42.49943" lon="-0.13182">
        <ele>909.1</ele>
        <time>2017-08-13T10:59:15Z</time>
      </trkpt>
      <trkpt lat="42.49945" lon="-0.13177">
        <ele>908.6</ele>
        <time>2017-08-13T10:59:17Z</time>
      </trkpt>
      <trkpt lat="42.49947" lon="-0.13172">
        <ele>907.6</ele>
        <time>2017-08-13T10:59:19Z</time>
      </trkpt>
      <trkpt lat="42.49949" lon="-0.13166">
        <ele>906.7</ele>
        <time>2017-08-13T10:59:21Z</time>
      </trkpt>
      <trkpt lat="42.4995" lon="-0.13163">
        <ele>906.7</ele>
        <time>2017-08-13T10:59:22Z</time>
      </trkpt>
      <trkpt lat="42.49951" lon="-0.13159">
        <ele>906.8</ele>
        <time>2017-08-13T10:59:23Z</time>
      </trkpt>
      <trkpt lat="42.4995" lon="-0.13155">
        <ele>905.4</ele>
        <time>2017-08-13T10:59:24Z</time>
      </trkpt>
      <trkpt lat="42.4995" lon="-0.13151">
        <ele>904.9</ele>
        <time>2017-08-13T10:59:25Z</time>
      </trkpt>
      <trkpt lat="42.49948" lon="-0.13145">
        <ele>904.4</ele>
        <time>2017-08-13T10:59:27Z</time>
      </trkpt>
      <trkpt lat="42.49946" lon="-0.13141">
        <ele>903.5</ele>
        <time>2017-08-13T10:59:29Z</time>
      </trkpt>
      <trkpt lat="42.49947" lon="-0.13138">
        <ele>903.3</ele>
        <time>2017-08-13T10:59:38Z</time>
      </trkpt>
      <trkpt lat="42.49947" lon="-0.13133">
        <ele>903</ele>
        <time>2017-08-13T10:59:40Z</time>
      </trkpt>
      <trkpt lat="42.49948" lon="-0.13126">
        <ele>902.9</ele>
        <time>2017-08-13T10:59:42Z</time>
      </trkpt>
      <trkpt lat="42.49949" lon="-0.13122">
        <ele>902.5</ele>
        <time>2017-08-13T10:59:43Z</time>
      </trkpt>
      <trkpt lat="42.49951" lon="-0.13119">
        <ele>902.7</ele>
        <time>2017-08-13T10:59:44Z</time>
      </trkpt>
      <trkpt lat="42.49953" lon="-0.13114">
        <ele>902.4</ele>
        <time>2017-08-13T10:59:46Z</time>
      </trkpt>
      <trkpt lat="42.49957" lon="-0.13109">
        <ele>903.6</ele>
        <time>2017-08-13T10:59:48Z</time>
      </trkpt>
      <trkpt lat="42.4996" lon="-0.13105">
        <ele>904.1</ele>
        <time>2017-08-13T10:59:50Z</time>
      </trkpt>
      <trkpt lat="42.49963" lon="-0.13099">
        <ele>904.6</ele>
        <time>2017-08-13T10:59:52Z</time>
      </trkpt>
      <trkpt lat="42.49967" lon="-0.13095">
        <ele>905</ele>
        <time>2017-08-13T10:59:54Z</time>
      </trkpt>
      <trkpt lat="42.49971" lon="-0.13091">
        <ele>905.3</ele>
        <time>2017-08-13T10:59:56Z</time>
      </trkpt>
      <trkpt lat="42.49973" lon="-0.13088">
        <ele>905.7</ele>
        <time>2017-08-13T10:59:57Z</time>
      </trkpt>
      <trkpt lat="42.49975" lon="-0.13086">
        <ele>905.7</ele>
        <time>2017-08-13T10:59:58Z</time>
      </trkpt>
      <trkpt lat="42.49977" lon="-0.13083">
        <ele>906.1</ele>
        <time>2017-08-13T10:59:59Z</time>
      </trkpt>
      <trkpt lat="42.49979" lon="-0.1308">
        <ele>906.6</ele>
        <time>2017-08-13T11:00:00Z</time>
      </trkpt>
      <trkpt lat="42.49982" lon="-0.13077">
        <ele>906.6</ele>
        <time>2017-08-13T11:00:01Z</time>
      </trkpt>
      <trkpt lat="42.49985" lon="-0.13074">
        <ele>906.9</ele>
        <time>2017-08-13T11:00:02Z</time>
      </trkpt>
      <trkpt lat="42.49988" lon="-0.13072">
        <ele>907.2</ele>
        <time>2017-08-13T11:00:03Z</time>
      </trkpt>
      <trkpt lat="42.49992" lon="-0.1307">
        <ele>909.2</ele>
        <time>2017-08-13T11:00:04Z</time>
      </trkpt>
      <trkpt lat="42.49996" lon="-0.13068">
        <ele>910.2</ele>
        <time>2017-08-13T11:00:05Z</time>
      </trkpt>
      <trkpt lat="42.5" lon="-0.13067">
        <ele>910.4</ele>
        <time>2017-08-13T11:00:06Z</time>
      </trkpt>
      <trkpt lat="42.50004" lon="-0.13066">
        <ele>911.4</ele>
        <time>2017-08-13T11:00:08Z</time>
      </trkpt>
      <trkpt lat="42.50007" lon="-0.13066">
        <ele>912.4</ele>
        <time>2017-08-13T11:00:16Z</time>
      </trkpt>
      <trkpt lat="42.50009" lon="-0.13064">
        <ele>913.6</ele>
        <time>2017-08-13T11:00:24Z</time>
      </trkpt>
      <trkpt lat="42.50012" lon="-0.13063">
        <ele>914.2</ele>
        <time>2017-08-13T11:00:28Z</time>
      </trkpt>
      <trkpt lat="42.50015" lon="-0.13061">
        <ele>915.4</ele>
        <time>2017-08-13T11:00:33Z</time>
      </trkpt>
      <trkpt lat="42.50017" lon="-0.13058">
        <ele>916</ele>
        <time>2017-08-13T11:00:36Z</time>
      </trkpt>
      <trkpt lat="42.50019" lon="-0.13055">
        <ele>915.5</ele>
        <time>2017-08-13T11:00:40Z</time>
      </trkpt>
      <trkpt lat="42.5002" lon="-0.13051">
        <ele>915.5</ele>
        <time>2017-08-13T11:00:44Z</time>
      </trkpt>
      <trkpt lat="42.5002" lon="-0.13047">
        <ele>916.1</ele>
        <time>2017-08-13T11:00:48Z</time>
      </trkpt>
      <trkpt lat="42.50022" lon="-0.13044">
        <ele>915.3</ele>
        <time>2017-08-13T11:00:52Z</time>
      </trkpt>
      <trkpt lat="42.50023" lon="-0.1304">
        <ele>915.7</ele>
        <time>2017-08-13T11:00:55Z</time>
      </trkpt>
      <trkpt lat="42.50025" lon="-0.13036">
        <ele>914.9</ele>
        <time>2017-08-13T11:00:59Z</time>
      </trkpt>
      <trkpt lat="42.50024" lon="-0.13032">
        <ele>914.1</ele>
        <time>2017-08-13T11:01:04Z</time>
      </trkpt>
      <trkpt lat="42.50024" lon="-0.13027">
        <ele>913.3</ele>
        <time>2017-08-13T11:01:09Z</time>
      </trkpt>
      <trkpt lat="42.50025" lon="-0.1302">
        <ele>911.4</ele>
        <time>2017-08-13T11:01:11Z</time>
      </trkpt>
      <trkpt lat="42.50025" lon="-0.13016">
        <ele>910.4</ele>
        <time>2017-08-13T11:01:12Z</time>
      </trkpt>
      <trkpt lat="42.50024" lon="-0.13009">
        <ele>909.4</ele>
        <time>2017-08-13T11:01:14Z</time>
      </trkpt>
      <trkpt lat="42.50024" lon="-0.13003">
        <ele>907.6</ele>
        <time>2017-08-13T11:01:16Z</time>
      </trkpt>
      <trkpt lat="42.50026" lon="-0.12997">
        <ele>906.9</ele>
        <time>2017-08-13T11:01:18Z</time>
      </trkpt>
      <trkpt lat="42.50028" lon="-0.12993">
        <ele>907.3</ele>
        <time>2017-08-13T11:01:20Z</time>
      </trkpt>
      <trkpt lat="42.50031" lon="-0.12991">
        <ele>908.3</ele>
        <time>2017-08-13T11:01:22Z</time>
      </trkpt>
      <trkpt lat="42.50035" lon="-0.12989">
        <ele>908.8</ele>
        <time>2017-08-13T11:01:24Z</time>
      </trkpt>
      <trkpt lat="42.50039" lon="-0.12988">
        <ele>910.1</ele>
        <time>2017-08-13T11:01:26Z</time>
      </trkpt>
      <trkpt lat="42.50043" lon="-0.12988">
        <ele>912.6</ele>
        <time>2017-08-13T11:01:28Z</time>
      </trkpt>
      <trkpt lat="42.50047" lon="-0.12988">
        <ele>913.9</ele>
        <time>2017-08-13T11:01:30Z</time>
      </trkpt>
      <trkpt lat="42.5005" lon="-0.12987">
        <ele>915.1</ele>
        <time>2017-08-13T11:01:32Z</time>
      </trkpt>
      <trkpt lat="42.50053" lon="-0.12985">
        <ele>915.7</ele>
        <time>2017-08-13T11:01:34Z</time>
      </trkpt>
      <trkpt lat="42.50054" lon="-0.1298">
        <ele>915.2</ele>
        <time>2017-08-13T11:01:36Z</time>
      </trkpt>
      <trkpt lat="42.50054" lon="-0.12976">
        <ele>914.8</ele>
        <time>2017-08-13T11:01:38Z</time>
      </trkpt>
      <trkpt lat="42.50054" lon="-0.12971">
        <ele>914.5</ele>
        <time>2017-08-13T11:01:40Z</time>
      </trkpt>
      <trkpt lat="42.50054" lon="-0.12967">
        <ele>914.1</ele>
        <time>2017-08-13T11:01:42Z</time>
      </trkpt>
      <trkpt lat="42.50056" lon="-0.12963">
        <ele>914.6</ele>
        <time>2017-08-13T11:01:44Z</time>
      </trkpt>
      <trkpt lat="42.50058" lon="-0.12959">
        <ele>914.1</ele>
        <time>2017-08-13T11:01:46Z</time>
      </trkpt>
      <trkpt lat="42.50059" lon="-0.12956">
        <ele>914.6</ele>
        <time>2017-08-13T11:01:48Z</time>
      </trkpt>
      <trkpt lat="42.50061" lon="-0.12952">
        <ele>914.6</ele>
        <time>2017-08-13T11:01:50Z</time>
      </trkpt>
      <trkpt lat="42.50063" lon="-0.12949">
        <ele>915.4</ele>
        <time>2017-08-13T11:01:52Z</time>
      </trkpt>
      <trkpt lat="42.50065" lon="-0.12946">
        <ele>916.3</ele>
        <time>2017-08-13T11:01:54Z</time>
      </trkpt>
      <trkpt lat="42.50067" lon="-0.12943">
        <ele>915.9</ele>
        <time>2017-08-13T11:01:56Z</time>
      </trkpt>
      <trkpt lat="42.5007" lon="-0.12941">
        <ele>917.4</ele>
        <time>2017-08-13T11:01:58Z</time>
      </trkpt>
      <trkpt lat="42.50073" lon="-0.12939">
        <ele>918.5</ele>
        <time>2017-08-13T11:02:00Z</time>
      </trkpt>
      <trkpt lat="42.50076" lon="-0.12938">
        <ele>920.1</ele>
        <time>2017-08-13T11:02:02Z</time>
      </trkpt>
      <trkpt lat="42.50079" lon="-0.12936">
        <ele>921.5</ele>
        <time>2017-08-13T11:02:04Z</time>
      </trkpt>
      <trkpt lat="42.50081" lon="-0.12934">
        <ele>922.4</ele>
        <time>2017-08-13T11:02:06Z</time>
      </trkpt>
      <trkpt lat="42.50084" lon="-0.12931">
        <ele>923.7</ele>
        <time>2017-08-13T11:02:08Z</time>
      </trkpt>
      <trkpt lat="42.50086" lon="-0.12928">
        <ele>923.1</ele>
        <time>2017-08-13T11:02:10Z</time>
      </trkpt>
      <trkpt lat="42.50088" lon="-0.12925">
        <ele>923.9</ele>
        <time>2017-08-13T11:02:12Z</time>
      </trkpt>
      <trkpt lat="42.50089" lon="-0.12921">
        <ele>923.3</ele>
        <time>2017-08-13T11:02:14Z</time>
      </trkpt>
      <trkpt lat="42.50089" lon="-0.12916">
        <ele>922.8</ele>
        <time>2017-08-13T11:02:16Z</time>
      </trkpt>
      <trkpt lat="42.50091" lon="-0.12912">
        <ele>923.7</ele>
        <time>2017-08-13T11:02:18Z</time>
      </trkpt>
      <trkpt lat="42.50092" lon="-0.12908">
        <ele>923</ele>
        <time>2017-08-13T11:02:20Z</time>
      </trkpt>
      <trkpt lat="42.50094" lon="-0.12904">
        <ele>923.8</ele>
        <time>2017-08-13T11:02:22Z</time>
      </trkpt>
      <trkpt lat="42.50096" lon="-0.12902">
        <ele>925.6</ele>
        <time>2017-08-13T11:02:24Z</time>
      </trkpt>
      <trkpt lat="42.50099" lon="-0.129">
        <ele>924.9</ele>
        <time>2017-08-13T11:02:26Z</time>
      </trkpt>
      <trkpt lat="42.50102" lon="-0.12898">
        <ele>926.7</ele>
        <time>2017-08-13T11:02:28Z</time>
      </trkpt>
      <trkpt lat="42.50104" lon="-0.12896">
        <ele>927.8</ele>
        <time>2017-08-13T11:02:30Z</time>
      </trkpt>
      <trkpt lat="42.50107" lon="-0.12893">
        <ele>929.5</ele>
        <time>2017-08-13T11:02:32Z</time>
      </trkpt>
      <trkpt lat="42.50109" lon="-0.1289">
        <ele>930.4</ele>
        <time>2017-08-13T11:02:34Z</time>
      </trkpt>
      <trkpt lat="42.50111" lon="-0.12887">
        <ele>929.9</ele>
        <time>2017-08-13T11:02:36Z</time>
      </trkpt>
      <trkpt lat="42.50113" lon="-0.12883">
        <ele>930.7</ele>
        <time>2017-08-13T11:02:38Z</time>
      </trkpt>
      <trkpt lat="42.50115" lon="-0.12878">
        <ele>931.6</ele>
        <time>2017-08-13T11:02:40Z</time>
      </trkpt>
      <trkpt lat="42.50117" lon="-0.12874">
        <ele>930.8</ele>
        <time>2017-08-13T11:02:42Z</time>
      </trkpt>
      <trkpt lat="42.5012" lon="-0.12869">
        <ele>931.8</ele>
        <time>2017-08-13T11:02:44Z</time>
      </trkpt>
      <trkpt lat="42.50123" lon="-0.12864">
        <ele>933.1</ele>
        <time>2017-08-13T11:02:46Z</time>
      </trkpt>
      <trkpt lat="42.50125" lon="-0.12859">
        <ele>934.4</ele>
        <time>2017-08-13T11:02:48Z</time>
      </trkpt>
      <trkpt lat="42.50127" lon="-0.12855">
        <ele>933.6</ele>
        <time>2017-08-13T11:02:50Z</time>
      </trkpt>
      <trkpt lat="42.50128" lon="-0.12851">
        <ele>934.7</ele>
        <time>2017-08-13T11:02:52Z</time>
      </trkpt>
      <trkpt lat="42.5013" lon="-0.12846">
        <ele>933.6</ele>
        <time>2017-08-13T11:02:54Z</time>
      </trkpt>
      <trkpt lat="42.50132" lon="-0.12841">
        <ele>934.5</ele>
        <time>2017-08-13T11:02:56Z</time>
      </trkpt>
      <trkpt lat="42.50133" lon="-0.12836">
        <ele>933.5</ele>
        <time>2017-08-13T11:02:58Z</time>
      </trkpt>
      <trkpt lat="42.50134" lon="-0.12831">
        <ele>934</ele>
        <time>2017-08-13T11:03:00Z</time>
      </trkpt>
      <trkpt lat="42.50136" lon="-0.12824">
        <ele>933.3</ele>
        <time>2017-08-13T11:03:02Z</time>
      </trkpt>
      <trkpt lat="42.50137" lon="-0.1282">
        <ele>932.6</ele>
        <time>2017-08-13T11:03:03Z</time>
      </trkpt>
      <trkpt lat="42.50137" lon="-0.12816">
        <ele>934</ele>
        <time>2017-08-13T11:03:04Z</time>
      </trkpt>
      <trkpt lat="42.50138" lon="-0.12813">
        <ele>933.3</ele>
        <time>2017-08-13T11:03:05Z</time>
      </trkpt>
      <trkpt lat="42.50138" lon="-0.12809">
        <ele>932.7</ele>
        <time>2017-08-13T11:03:06Z</time>
      </trkpt>
      <trkpt lat="42.50138" lon="-0.12805">
        <ele>932</ele>
        <time>2017-08-13T11:03:07Z</time>
      </trkpt>
      <trkpt lat="42.50137" lon="-0.128">
        <ele>931.3</ele>
        <time>2017-08-13T11:03:08Z</time>
      </trkpt>
      <trkpt lat="42.50137" lon="-0.12795">
        <ele>930.4</ele>
        <time>2017-08-13T11:03:09Z</time>
      </trkpt>
      <trkpt lat="42.50137" lon="-0.12788">
        <ele>928.3</ele>
        <time>2017-08-13T11:03:10Z</time>
      </trkpt>
      <trkpt lat="42.50137" lon="-0.12782">
        <ele>925.4</ele>
        <time>2017-08-13T11:03:11Z</time>
      </trkpt>
      <trkpt lat="42.50137" lon="-0.12776">
        <ele>923.7</ele>
        <time>2017-08-13T11:03:12Z</time>
      </trkpt>
      <trkpt lat="42.50136" lon="-0.12769">
        <ele>922.8</ele>
        <time>2017-08-13T11:03:13Z</time>
      </trkpt>
      <trkpt lat="42.50136" lon="-0.12763">
        <ele>921.8</ele>
        <time>2017-08-13T11:03:14Z</time>
      </trkpt>
      <trkpt lat="42.50136" lon="-0.12758">
        <ele>920.1</ele>
        <time>2017-08-13T11:03:15Z</time>
      </trkpt>
      <trkpt lat="42.50137" lon="-0.12754">
        <ele>919.4</ele>
        <time>2017-08-13T11:03:16Z</time>
      </trkpt>
      <trkpt lat="42.50138" lon="-0.12749">
        <ele>919.9</ele>
        <time>2017-08-13T11:03:18Z</time>
      </trkpt>
      <trkpt lat="42.50139" lon="-0.12744">
        <ele>919.3</ele>
        <time>2017-08-13T11:03:20Z</time>
      </trkpt>
      <trkpt lat="42.50139" lon="-0.1274">
        <ele>918.7</ele>
        <time>2017-08-13T11:03:22Z</time>
      </trkpt>
      <trkpt lat="42.50138" lon="-0.12733">
        <ele>917.7</ele>
        <time>2017-08-13T11:03:24Z</time>
      </trkpt>
      <trkpt lat="42.50139" lon="-0.12725">
        <ele>917.4</ele>
        <time>2017-08-13T11:03:26Z</time>
      </trkpt>
      <trkpt lat="42.50141" lon="-0.12718">
        <ele>918</ele>
        <time>2017-08-13T11:03:28Z</time>
      </trkpt>
      <trkpt lat="42.50144" lon="-0.12712">
        <ele>918.9</ele>
        <time>2017-08-13T11:03:30Z</time>
      </trkpt>
      <trkpt lat="42.50145" lon="-0.12708">
        <ele>918.6</ele>
        <time>2017-08-13T11:03:31Z</time>
      </trkpt>
      <trkpt lat="42.50145" lon="-0.12701">
        <ele>918.1</ele>
        <time>2017-08-13T11:03:33Z</time>
      </trkpt>
      <trkpt lat="42.50145" lon="-0.12694">
        <ele>917.8</ele>
        <time>2017-08-13T11:03:35Z</time>
      </trkpt>
      <trkpt lat="42.50147" lon="-0.12689">
        <ele>918.3</ele>
        <time>2017-08-13T11:03:37Z</time>
      </trkpt>
      <trkpt lat="42.50149" lon="-0.12685">
        <ele>917.8</ele>
        <time>2017-08-13T11:03:40Z</time>
      </trkpt>
      <trkpt lat="42.50152" lon="-0.12681">
        <ele>918.5</ele>
        <time>2017-08-13T11:03:43Z</time>
      </trkpt>
      <trkpt lat="42.50155" lon="-0.12678">
        <ele>919.6</ele>
        <time>2017-08-13T11:03:45Z</time>
      </trkpt>
      <trkpt lat="42.50158" lon="-0.12674">
        <ele>920</ele>
        <time>2017-08-13T11:03:47Z</time>
      </trkpt>
      <trkpt lat="42.5016" lon="-0.12673">
        <ele>920.3</ele>
        <time>2017-08-13T11:03:51Z</time>
      </trkpt>
      <trkpt lat="42.50169" lon="-0.12676">
        <ele>922.2</ele>
        <time>2017-08-13T11:04:32Z</time>
      </trkpt>
      <trkpt lat="42.50173" lon="-0.12677">
        <ele>923.2</ele>
        <time>2017-08-13T11:04:35Z</time>
      </trkpt>
      <trkpt lat="42.50176" lon="-0.12678">
        <ele>924.2</ele>
        <time>2017-08-13T11:04:37Z</time>
      </trkpt>
      <trkpt lat="42.50179" lon="-0.1268">
        <ele>924.5</ele>
        <time>2017-08-13T11:04:39Z</time>
      </trkpt>
      <trkpt lat="42.50182" lon="-0.1268">
        <ele>924.6</ele>
        <time>2017-08-13T11:04:41Z</time>
      </trkpt>
      <trkpt lat="42.50186" lon="-0.1268">
        <ele>924.7</ele>
        <time>2017-08-13T11:04:43Z</time>
      </trkpt>
      <trkpt lat="42.5019" lon="-0.12677">
        <ele>924.6</ele>
        <time>2017-08-13T11:04:45Z</time>
      </trkpt>
      <trkpt lat="42.50194" lon="-0.12675">
        <ele>923.7</ele>
        <time>2017-08-13T11:04:47Z</time>
      </trkpt>
      <trkpt lat="42.50198" lon="-0.12673">
        <ele>923.1</ele>
        <time>2017-08-13T11:04:49Z</time>
      </trkpt>
      <trkpt lat="42.502" lon="-0.12671">
        <ele>922.2</ele>
        <time>2017-08-13T11:04:51Z</time>
      </trkpt>
      <trkpt lat="42.50203" lon="-0.12669">
        <ele>921.7</ele>
        <time>2017-08-13T11:04:53Z</time>
      </trkpt>
      <trkpt lat="42.50206" lon="-0.12669">
        <ele>920.1</ele>
        <time>2017-08-13T11:05:03Z</time>
      </trkpt>
      <trkpt lat="42.50208" lon="-0.1267">
        <ele>920.5</ele>
        <time>2017-08-13T11:05:09Z</time>
      </trkpt>
      <trkpt lat="42.50211" lon="-0.1267">
        <ele>919.7</ele>
        <time>2017-08-13T11:05:20Z</time>
      </trkpt>
      <trkpt lat="42.50215" lon="-0.12669">
        <ele>918.9</ele>
        <time>2017-08-13T11:05:26Z</time>
      </trkpt>
      <trkpt lat="42.50219" lon="-0.12669">
        <ele>916.9</ele>
        <time>2017-08-13T11:05:29Z</time>
      </trkpt>
      <trkpt lat="42.50223" lon="-0.1267">
        <ele>916.5</ele>
        <time>2017-08-13T11:05:34Z</time>
      </trkpt>
      <trkpt lat="42.50225" lon="-0.12671">
        <ele>916.5</ele>
        <time>2017-08-13T11:05:37Z</time>
      </trkpt>
      <trkpt lat="42.50229" lon="-0.12672">
        <ele>914.8</ele>
        <time>2017-08-13T11:05:40Z</time>
      </trkpt>
      <trkpt lat="42.50233" lon="-0.12674">
        <ele>915.4</ele>
        <time>2017-08-13T11:05:42Z</time>
      </trkpt>
      <trkpt lat="42.50236" lon="-0.12675">
        <ele>914.3</ele>
        <time>2017-08-13T11:05:44Z</time>
      </trkpt>
      <trkpt lat="42.5024" lon="-0.12676">
        <ele>913.2</ele>
        <time>2017-08-13T11:05:46Z</time>
      </trkpt>
      <trkpt lat="42.50243" lon="-0.12677">
        <ele>912</ele>
        <time>2017-08-13T11:05:48Z</time>
      </trkpt>
      <trkpt lat="42.50248" lon="-0.12679">
        <ele>912.7</ele>
        <time>2017-08-13T11:05:50Z</time>
      </trkpt>
      <trkpt lat="42.50251" lon="-0.1268">
        <ele>911.5</ele>
        <time>2017-08-13T11:05:51Z</time>
      </trkpt>
      <trkpt lat="42.50254" lon="-0.12682">
        <ele>912.3</ele>
        <time>2017-08-13T11:05:52Z</time>
      </trkpt>
      <trkpt lat="42.50258" lon="-0.12683">
        <ele>909.3</ele>
        <time>2017-08-13T11:05:53Z</time>
      </trkpt>
      <trkpt lat="42.50263" lon="-0.12685">
        <ele>907.7</ele>
        <time>2017-08-13T11:05:54Z</time>
      </trkpt>
      <trkpt lat="42.50268" lon="-0.12688">
        <ele>906.1</ele>
        <time>2017-08-13T11:05:55Z</time>
      </trkpt>
      <trkpt lat="42.50275" lon="-0.12694">
        <ele>904.3</ele>
        <time>2017-08-13T11:05:56Z</time>
      </trkpt>
      <trkpt lat="42.50281" lon="-0.12699">
        <ele>904</ele>
        <time>2017-08-13T11:05:57Z</time>
      </trkpt>
      <trkpt lat="42.50285" lon="-0.12701">
        <ele>902.4</ele>
        <time>2017-08-13T11:05:58Z</time>
      </trkpt>
      <trkpt lat="42.50288" lon="-0.12704">
        <ele>902.2</ele>
        <time>2017-08-13T11:05:59Z</time>
      </trkpt>
      <trkpt lat="42.50292" lon="-0.12707">
        <ele>900.6</ele>
        <time>2017-08-13T11:06:00Z</time>
      </trkpt>
      <trkpt lat="42.50295" lon="-0.1271">
        <ele>900.5</ele>
        <time>2017-08-13T11:06:01Z</time>
      </trkpt>
      <trkpt lat="42.50298" lon="-0.12712">
        <ele>900.3</ele>
        <time>2017-08-13T11:06:02Z</time>
      </trkpt>
      <trkpt lat="42.50301" lon="-0.12714">
        <ele>899</ele>
        <time>2017-08-13T11:06:03Z</time>
      </trkpt>
      <trkpt lat="42.50304" lon="-0.12716">
        <ele>899.1</ele>
        <time>2017-08-13T11:06:04Z</time>
      </trkpt>
      <trkpt lat="42.50306" lon="-0.12719">
        <ele>898.1</ele>
        <time>2017-08-13T11:06:05Z</time>
      </trkpt>
      <trkpt lat="42.50309" lon="-0.12721">
        <ele>898.3</ele>
        <time>2017-08-13T11:06:06Z</time>
      </trkpt>
      <trkpt lat="42.50313" lon="-0.12722">
        <ele>897.4</ele>
        <time>2017-08-13T11:06:09Z</time>
      </trkpt>
      <trkpt lat="42.50316" lon="-0.12721">
        <ele>896.6</ele>
        <time>2017-08-13T11:06:10Z</time>
      </trkpt>
      <trkpt lat="42.50319" lon="-0.1272">
        <ele>894.6</ele>
        <time>2017-08-13T11:06:11Z</time>
      </trkpt>
      <trkpt lat="42.50324" lon="-0.12719">
        <ele>893.9</ele>
        <time>2017-08-13T11:06:12Z</time>
      </trkpt>
      <trkpt lat="42.50328" lon="-0.12719">
        <ele>892.6</ele>
        <time>2017-08-13T11:06:13Z</time>
      </trkpt>
      <trkpt lat="42.50331" lon="-0.12719">
        <ele>892.2</ele>
        <time>2017-08-13T11:06:14Z</time>
      </trkpt>
      <trkpt lat="42.50334" lon="-0.12719">
        <ele>891.7</ele>
        <time>2017-08-13T11:06:15Z</time>
      </trkpt>
      <trkpt lat="42.50337" lon="-0.1272">
        <ele>892.7</ele>
        <time>2017-08-13T11:06:16Z</time>
      </trkpt>
      <trkpt lat="42.50341" lon="-0.12722">
        <ele>892.1</ele>
        <time>2017-08-13T11:06:17Z</time>
      </trkpt>
      <trkpt lat="42.50344" lon="-0.12722">
        <ele>891.4</ele>
        <time>2017-08-13T11:06:18Z</time>
      </trkpt>
      <trkpt lat="42.50348" lon="-0.12723">
        <ele>890.6</ele>
        <time>2017-08-13T11:06:19Z</time>
      </trkpt>
      <trkpt lat="42.50351" lon="-0.12722">
        <ele>889.8</ele>
        <time>2017-08-13T11:06:20Z</time>
      </trkpt>
      <trkpt lat="42.50355" lon="-0.12722">
        <ele>888.9</ele>
        <time>2017-08-13T11:06:21Z</time>
      </trkpt>
      <trkpt lat="42.50359" lon="-0.12723">
        <ele>887.4</ele>
        <time>2017-08-13T11:06:22Z</time>
      </trkpt>
      <trkpt lat="42.50363" lon="-0.12725">
        <ele>888.3</ele>
        <time>2017-08-13T11:06:23Z</time>
      </trkpt>
      <trkpt lat="42.50366" lon="-0.12728">
        <ele>887.4</ele>
        <time>2017-08-13T11:06:24Z</time>
      </trkpt>
      <trkpt lat="42.5037" lon="-0.1273">
        <ele>888.2</ele>
        <time>2017-08-13T11:06:25Z</time>
      </trkpt>
      <trkpt lat="42.50373" lon="-0.12732">
        <ele>887.1</ele>
        <time>2017-08-13T11:06:26Z</time>
      </trkpt>
      <trkpt lat="42.50378" lon="-0.12734">
        <ele>887.9</ele>
        <time>2017-08-13T11:06:27Z</time>
      </trkpt>
      <trkpt lat="42.50382" lon="-0.12737">
        <ele>885.5</ele>
        <time>2017-08-13T11:06:28Z</time>
      </trkpt>
      <trkpt lat="42.50386" lon="-0.12738">
        <ele>886.3</ele>
        <time>2017-08-13T11:06:29Z</time>
      </trkpt>
      <trkpt lat="42.50389" lon="-0.12739">
        <ele>885.1</ele>
        <time>2017-08-13T11:06:30Z</time>
      </trkpt>
      <trkpt lat="42.50392" lon="-0.12741">
        <ele>883.9</ele>
        <time>2017-08-13T11:06:31Z</time>
      </trkpt>
      <trkpt lat="42.50396" lon="-0.12743">
        <ele>884.3</ele>
        <time>2017-08-13T11:06:32Z</time>
      </trkpt>
      <trkpt lat="42.50399" lon="-0.12744">
        <ele>882.7</ele>
        <time>2017-08-13T11:06:33Z</time>
      </trkpt>
      <trkpt lat="42.50403" lon="-0.12746">
        <ele>879.6</ele>
        <time>2017-08-13T11:06:34Z</time>
      </trkpt>
      <trkpt lat="42.50408" lon="-0.12747">
        <ele>879.1</ele>
        <time>2017-08-13T11:06:35Z</time>
      </trkpt>
      <trkpt lat="42.5041" lon="-0.12748">
        <ele>877.7</ele>
        <time>2017-08-13T11:06:36Z</time>
      </trkpt>
      <trkpt lat="42.50413" lon="-0.1275">
        <ele>876.4</ele>
        <time>2017-08-13T11:06:37Z</time>
      </trkpt>
      <trkpt lat="42.50416" lon="-0.12753">
        <ele>876.2</ele>
        <time>2017-08-13T11:06:39Z</time>
      </trkpt>
      <trkpt lat="42.50421" lon="-0.12758">
        <ele>876.2</ele>
        <time>2017-08-13T11:06:41Z</time>
      </trkpt>
      <trkpt lat="42.50424" lon="-0.12761">
        <ele>876.4</ele>
        <time>2017-08-13T11:06:42Z</time>
      </trkpt>
      <trkpt lat="42.50427" lon="-0.12764">
        <ele>876.8</ele>
        <time>2017-08-13T11:06:43Z</time>
      </trkpt>
      <trkpt lat="42.5043" lon="-0.12767">
        <ele>876</ele>
        <time>2017-08-13T11:06:44Z</time>
      </trkpt>
      <trkpt lat="42.50433" lon="-0.12771">
        <ele>876.4</ele>
        <time>2017-08-13T11:06:45Z</time>
      </trkpt>
      <trkpt lat="42.50436" lon="-0.12774">
        <ele>876.7</ele>
        <time>2017-08-13T11:06:46Z</time>
      </trkpt>
      <trkpt lat="42.50438" lon="-0.12777">
        <ele>876.8</ele>
        <time>2017-08-13T11:06:47Z</time>
      </trkpt>
      <trkpt lat="42.50442" lon="-0.12782">
        <ele>877.1</ele>
        <time>2017-08-13T11:06:49Z</time>
      </trkpt>
      <trkpt lat="42.50446" lon="-0.12786">
        <ele>877.5</ele>
        <time>2017-08-13T11:06:51Z</time>
      </trkpt>
      <trkpt lat="42.50449" lon="-0.1279">
        <ele>878.1</ele>
        <time>2017-08-13T11:06:53Z</time>
      </trkpt>
      <trkpt lat="42.50452" lon="-0.12794">
        <ele>878.5</ele>
        <time>2017-08-13T11:06:55Z</time>
      </trkpt>
      <trkpt lat="42.50456" lon="-0.12798">
        <ele>878.8</ele>
        <time>2017-08-13T11:06:57Z</time>
      </trkpt>
      <trkpt lat="42.50458" lon="-0.12801">
        <ele>877.8</ele>
        <time>2017-08-13T11:06:58Z</time>
      </trkpt>
      <trkpt lat="42.50462" lon="-0.12804">
        <ele>877.8</ele>
        <time>2017-08-13T11:07:00Z</time>
      </trkpt>
      <trkpt lat="42.50467" lon="-0.12808">
        <ele>876.5</ele>
        <time>2017-08-13T11:07:02Z</time>
      </trkpt>
      <trkpt lat="42.5047" lon="-0.1281">
        <ele>875.5</ele>
        <time>2017-08-13T11:07:03Z</time>
      </trkpt>
      <trkpt lat="42.50472" lon="-0.12811">
        <ele>876.5</ele>
        <time>2017-08-13T11:07:04Z</time>
      </trkpt>
      <trkpt lat="42.50475" lon="-0.12813">
        <ele>875.5</ele>
        <time>2017-08-13T11:07:05Z</time>
      </trkpt>
      <trkpt lat="42.50479" lon="-0.12815">
        <ele>875.5</ele>
        <time>2017-08-13T11:07:06Z</time>
      </trkpt>
      <trkpt lat="42.50482" lon="-0.12818">
        <ele>874.3</ele>
        <time>2017-08-13T11:07:07Z</time>
      </trkpt>
      <trkpt lat="42.50485" lon="-0.1282">
        <ele>874.3</ele>
        <time>2017-08-13T11:07:08Z</time>
      </trkpt>
      <trkpt lat="42.50488" lon="-0.12822">
        <ele>873.1</ele>
        <time>2017-08-13T11:07:09Z</time>
      </trkpt>
      <trkpt lat="42.50491" lon="-0.12823">
        <ele>871.9</ele>
        <time>2017-08-13T11:07:10Z</time>
      </trkpt>
      <trkpt lat="42.50495" lon="-0.12824">
        <ele>871.4</ele>
        <time>2017-08-13T11:07:12Z</time>
      </trkpt>
      <trkpt lat="42.50499" lon="-0.12822">
        <ele>869.1</ele>
        <time>2017-08-13T11:07:14Z</time>
      </trkpt>
      <trkpt lat="42.50502" lon="-0.1282">
        <ele>868.4</ele>
        <time>2017-08-13T11:07:15Z</time>
      </trkpt>
      <trkpt lat="42.50505" lon="-0.12818">
        <ele>866.2</ele>
        <time>2017-08-13T11:07:16Z</time>
      </trkpt>
      <trkpt lat="42.50508" lon="-0.12816">
        <ele>865.4</ele>
        <time>2017-08-13T11:07:17Z</time>
      </trkpt>
      <trkpt lat="42.50512" lon="-0.12815">
        <ele>864.7</ele>
        <time>2017-08-13T11:07:18Z</time>
      </trkpt>
      <trkpt lat="42.50515" lon="-0.12814">
        <ele>862.6</ele>
        <time>2017-08-13T11:07:19Z</time>
      </trkpt>
      <trkpt lat="42.50518" lon="-0.12815">
        <ele>863.4</ele>
        <time>2017-08-13T11:07:20Z</time>
      </trkpt>
      <trkpt lat="42.5052" lon="-0.12815">
        <ele>862.8</ele>
        <time>2017-08-13T11:07:21Z</time>
      </trkpt>
      <trkpt lat="42.50524" lon="-0.12815">
        <ele>862.3</ele>
        <time>2017-08-13T11:07:22Z</time>
      </trkpt>
      <trkpt lat="42.50527" lon="-0.12815">
        <ele>861.9</ele>
        <time>2017-08-13T11:07:23Z</time>
      </trkpt>
      <trkpt lat="42.50531" lon="-0.12814">
        <ele>859.9</ele>
        <time>2017-08-13T11:07:24Z</time>
      </trkpt>
      <trkpt lat="42.50534" lon="-0.12815">
        <ele>860.9</ele>
        <time>2017-08-13T11:07:25Z</time>
      </trkpt>
      <trkpt lat="42.50537" lon="-0.12818">
        <ele>860.2</ele>
        <time>2017-08-13T11:07:27Z</time>
      </trkpt>
      <trkpt lat="42.50541" lon="-0.12821">
        <ele>861.3</ele>
        <time>2017-08-13T11:07:29Z</time>
      </trkpt>
      <trkpt lat="42.50545" lon="-0.12822">
        <ele>859.9</ele>
        <time>2017-08-13T11:07:31Z</time>
      </trkpt>
      <trkpt lat="42.50549" lon="-0.12823">
        <ele>859.2</ele>
        <time>2017-08-13T11:07:32Z</time>
      </trkpt>
      <trkpt lat="42.50552" lon="-0.12823">
        <ele>858.5</ele>
        <time>2017-08-13T11:07:33Z</time>
      </trkpt>
      <trkpt lat="42.50556" lon="-0.12822">
        <ele>857.9</ele>
        <time>2017-08-13T11:07:34Z</time>
      </trkpt>
      <trkpt lat="42.5056" lon="-0.12822">
        <ele>857.2</ele>
        <time>2017-08-13T11:07:35Z</time>
      </trkpt>
      <trkpt lat="42.50564" lon="-0.12823">
        <ele>855.6</ele>
        <time>2017-08-13T11:07:36Z</time>
      </trkpt>
      <trkpt lat="42.50568" lon="-0.12823">
        <ele>856.4</ele>
        <time>2017-08-13T11:07:37Z</time>
      </trkpt>
      <trkpt lat="42.50572" lon="-0.12827">
        <ele>855.4</ele>
        <time>2017-08-13T11:07:39Z</time>
      </trkpt>
      <trkpt lat="42.50575" lon="-0.12828">
        <ele>855.8</ele>
        <time>2017-08-13T11:07:41Z</time>
      </trkpt>
      <trkpt lat="42.50579" lon="-0.1283">
        <ele>854.7</ele>
        <time>2017-08-13T11:07:43Z</time>
      </trkpt>
      <trkpt lat="42.50582" lon="-0.12833">
        <ele>854.8</ele>
        <time>2017-08-13T11:07:45Z</time>
      </trkpt>
      <trkpt lat="42.50585" lon="-0.12835">
        <ele>853.7</ele>
        <time>2017-08-13T11:07:47Z</time>
      </trkpt>
      <trkpt lat="42.5059" lon="-0.12838">
        <ele>852.5</ele>
        <time>2017-08-13T11:07:49Z</time>
      </trkpt>
      <trkpt lat="42.50593" lon="-0.12841">
        <ele>853.8</ele>
        <time>2017-08-13T11:07:50Z</time>
      </trkpt>
      <trkpt lat="42.50595" lon="-0.12844">
        <ele>852.4</ele>
        <time>2017-08-13T11:07:51Z</time>
      </trkpt>
      <trkpt lat="42.50597" lon="-0.12847">
        <ele>852.5</ele>
        <time>2017-08-13T11:07:52Z</time>
      </trkpt>
      <trkpt lat="42.50599" lon="-0.12853">
        <ele>852.5</ele>
        <time>2017-08-13T11:07:54Z</time>
      </trkpt>
      <trkpt lat="42.50601" lon="-0.12856">
        <ele>853.8</ele>
        <time>2017-08-13T11:07:56Z</time>
      </trkpt>
      <trkpt lat="42.50602" lon="-0.1286">
        <ele>854.9</ele>
        <time>2017-08-13T11:07:58Z</time>
      </trkpt>
      <trkpt lat="42.50605" lon="-0.12865">
        <ele>854.4</ele>
        <time>2017-08-13T11:08:00Z</time>
      </trkpt>
      <trkpt lat="42.5061" lon="-0.12865">
        <ele>851.8</ele>
        <time>2017-08-13T11:08:02Z</time>
      </trkpt>
      <trkpt lat="42.50613" lon="-0.12862">
        <ele>849.8</ele>
        <time>2017-08-13T11:08:04Z</time>
      </trkpt>
      <trkpt lat="42.50618" lon="-0.1286">
        <ele>848.7</ele>
        <time>2017-08-13T11:08:06Z</time>
      </trkpt>
      <trkpt lat="42.50621" lon="-0.12861">
        <ele>846.2</ele>
        <time>2017-08-13T11:08:08Z</time>
      </trkpt>
      <trkpt lat="42.50624" lon="-0.12865">
        <ele>845.7</ele>
        <time>2017-08-13T11:08:10Z</time>
      </trkpt>
      <trkpt lat="42.50628" lon="-0.12868">
        <ele>845.5</ele>
        <time>2017-08-13T11:08:12Z</time>
      </trkpt>
      <trkpt lat="42.50631" lon="-0.1287">
        <ele>845.7</ele>
        <time>2017-08-13T11:08:13Z</time>
      </trkpt>
      <trkpt lat="42.50634" lon="-0.12871">
        <ele>845.9</ele>
        <time>2017-08-13T11:08:14Z</time>
      </trkpt>
      <trkpt lat="42.50639" lon="-0.12874">
        <ele>846</ele>
        <time>2017-08-13T11:08:16Z</time>
      </trkpt>
      <trkpt lat="42.50642" lon="-0.12875">
        <ele>846.1</ele>
        <time>2017-08-13T11:08:17Z</time>
      </trkpt>
      <trkpt lat="42.50646" lon="-0.12879">
        <ele>846.2</ele>
        <time>2017-08-13T11:08:19Z</time>
      </trkpt>
      <trkpt lat="42.50649" lon="-0.12881">
        <ele>846.3</ele>
        <time>2017-08-13T11:08:21Z</time>
      </trkpt>
      <trkpt lat="42.50652" lon="-0.12883">
        <ele>846.4</ele>
        <time>2017-08-13T11:08:23Z</time>
      </trkpt>
      <trkpt lat="42.50657" lon="-0.12883">
        <ele>846.5</ele>
        <time>2017-08-13T11:08:25Z</time>
      </trkpt>
      <trkpt lat="42.5066" lon="-0.12883">
        <ele>846.6</ele>
        <time>2017-08-13T11:08:27Z</time>
      </trkpt>
      <trkpt lat="42.50665" lon="-0.12884">
        <ele>846.7</ele>
        <time>2017-08-13T11:08:29Z</time>
      </trkpt>
      <trkpt lat="42.50667" lon="-0.12886">
        <ele>846.7</ele>
        <time>2017-08-13T11:08:30Z</time>
      </trkpt>
      <trkpt lat="42.5067" lon="-0.12888">
        <ele>846.8</ele>
        <time>2017-08-13T11:08:31Z</time>
      </trkpt>
      <trkpt lat="42.50672" lon="-0.1289">
        <ele>846.9</ele>
        <time>2017-08-13T11:08:32Z</time>
      </trkpt>
      <trkpt lat="42.50674" lon="-0.12892">
        <ele>846.9</ele>
        <time>2017-08-13T11:08:33Z</time>
      </trkpt>
      <trkpt lat="42.50679" lon="-0.12895">
        <ele>847.1</ele>
        <time>2017-08-13T11:08:35Z</time>
      </trkpt>
      <trkpt lat="42.50684" lon="-0.12897">
        <ele>847.2</ele>
        <time>2017-08-13T11:08:37Z</time>
      </trkpt>
      <trkpt lat="42.50687" lon="-0.12899">
        <ele>847.4</ele>
        <time>2017-08-13T11:08:38Z</time>
      </trkpt>
      <trkpt lat="42.50691" lon="-0.12903">
        <ele>847.8</ele>
        <time>2017-08-13T11:08:40Z</time>
      </trkpt>
      <trkpt lat="42.50693" lon="-0.12907">
        <ele>848</ele>
        <time>2017-08-13T11:08:41Z</time>
      </trkpt>
      <trkpt lat="42.50695" lon="-0.12911">
        <ele>848.2</ele>
        <time>2017-08-13T11:08:42Z</time>
      </trkpt>
      <trkpt lat="42.50697" lon="-0.12915">
        <ele>848.3</ele>
        <time>2017-08-13T11:08:43Z</time>
      </trkpt>
      <trkpt lat="42.50699" lon="-0.12918">
        <ele>848.4</ele>
        <time>2017-08-13T11:08:44Z</time>
      </trkpt>
      <trkpt lat="42.50701" lon="-0.12922">
        <ele>848.5</ele>
        <time>2017-08-13T11:08:45Z</time>
      </trkpt>
      <trkpt lat="42.50703" lon="-0.12927">
        <ele>848.6</ele>
        <time>2017-08-13T11:08:46Z</time>
      </trkpt>
      <trkpt lat="42.50705" lon="-0.12931">
        <ele>848.7</ele>
        <time>2017-08-13T11:08:47Z</time>
      </trkpt>
      <trkpt lat="42.50707" lon="-0.12935">
        <ele>848.8</ele>
        <time>2017-08-13T11:08:48Z</time>
      </trkpt>
      <trkpt lat="42.50709" lon="-0.12939">
        <ele>848.9</ele>
        <time>2017-08-13T11:08:49Z</time>
      </trkpt>
      <trkpt lat="42.50711" lon="-0.12943">
        <ele>849</ele>
        <time>2017-08-13T11:08:50Z</time>
      </trkpt>
      <trkpt lat="42.50713" lon="-0.12947">
        <ele>849.1</ele>
        <time>2017-08-13T11:08:51Z</time>
      </trkpt>
      <trkpt lat="42.50716" lon="-0.12952">
        <ele>849.3</ele>
        <time>2017-08-13T11:08:52Z</time>
      </trkpt>
      <trkpt lat="42.50719" lon="-0.12954">
        <ele>849.6</ele>
        <time>2017-08-13T11:08:53Z</time>
      </trkpt>
      <trkpt lat="42.50722" lon="-0.12957">
        <ele>849.8</ele>
        <time>2017-08-13T11:08:54Z</time>
      </trkpt>
      <trkpt lat="42.50725" lon="-0.12959">
        <ele>850.1</ele>
        <time>2017-08-13T11:08:55Z</time>
      </trkpt>
      <trkpt lat="42.5073" lon="-0.12961">
        <ele>850.5</ele>
        <time>2017-08-13T11:08:57Z</time>
      </trkpt>
      <trkpt lat="42.50733" lon="-0.12963">
        <ele>850.7</ele>
        <time>2017-08-13T11:08:58Z</time>
      </trkpt>
      <trkpt lat="42.50736" lon="-0.12964">
        <ele>850.8</ele>
        <time>2017-08-13T11:08:59Z</time>
      </trkpt>
      <trkpt lat="42.50739" lon="-0.12966">
        <ele>850.9</ele>
        <time>2017-08-13T11:09:00Z</time>
      </trkpt>
      <trkpt lat="42.50744" lon="-0.12969">
        <ele>851.1</ele>
        <time>2017-08-13T11:09:02Z</time>
      </trkpt>
      <trkpt lat="42.50747" lon="-0.12971">
        <ele>851.2</ele>
        <time>2017-08-13T11:09:03Z</time>
      </trkpt>
      <trkpt lat="42.5075" lon="-0.12973">
        <ele>851.3</ele>
        <time>2017-08-13T11:09:04Z</time>
      </trkpt>
      <trkpt lat="42.50752" lon="-0.12975">
        <ele>851.3</ele>
        <time>2017-08-13T11:09:05Z</time>
      </trkpt>
      <trkpt lat="42.50755" lon="-0.12978">
        <ele>851.5</ele>
        <time>2017-08-13T11:09:06Z</time>
      </trkpt>
      <trkpt lat="42.50757" lon="-0.1298">
        <ele>851.6</ele>
        <time>2017-08-13T11:09:07Z</time>
      </trkpt>
      <trkpt lat="42.50759" lon="-0.12983">
        <ele>851.7</ele>
        <time>2017-08-13T11:09:08Z</time>
      </trkpt>
      <trkpt lat="42.50762" lon="-0.12985">
        <ele>851.9</ele>
        <time>2017-08-13T11:09:09Z</time>
      </trkpt>
      <trkpt lat="42.50764" lon="-0.12988">
        <ele>852.2</ele>
        <time>2017-08-13T11:09:10Z</time>
      </trkpt>
      <trkpt lat="42.50767" lon="-0.12991">
        <ele>852.5</ele>
        <time>2017-08-13T11:09:11Z</time>
      </trkpt>
      <trkpt lat="42.50769" lon="-0.12994">
        <ele>852.9</ele>
        <time>2017-08-13T11:09:12Z</time>
      </trkpt>
      <trkpt lat="42.50772" lon="-0.12997">
        <ele>853.2</ele>
        <time>2017-08-13T11:09:13Z</time>
      </trkpt>
      <trkpt lat="42.50774" lon="-0.13">
        <ele>853.5</ele>
        <time>2017-08-13T11:09:14Z</time>
      </trkpt>
      <trkpt lat="42.50776" lon="-0.13003">
        <ele>853.7</ele>
        <time>2017-08-13T11:09:15Z</time>
      </trkpt>
      <trkpt lat="42.50778" lon="-0.13006">
        <ele>853.9</ele>
        <time>2017-08-13T11:09:16Z</time>
      </trkpt>
      <trkpt lat="42.50781" lon="-0.13008">
        <ele>854.1</ele>
        <time>2017-08-13T11:09:17Z</time>
      </trkpt>
      <trkpt lat="42.50783" lon="-0.13011">
        <ele>854.4</ele>
        <time>2017-08-13T11:09:18Z</time>
      </trkpt>
      <trkpt lat="42.50785" lon="-0.13013">
        <ele>854.7</ele>
        <time>2017-08-13T11:09:19Z</time>
      </trkpt>
      <trkpt lat="42.5079" lon="-0.13017">
        <ele>855.2</ele>
        <time>2017-08-13T11:09:21Z</time>
      </trkpt>
      <trkpt lat="42.50792" lon="-0.13019">
        <ele>855.5</ele>
        <time>2017-08-13T11:09:22Z</time>
      </trkpt>
      <trkpt lat="42.50795" lon="-0.13022">
        <ele>855.6</ele>
        <time>2017-08-13T11:09:23Z</time>
      </trkpt>
      <trkpt lat="42.50797" lon="-0.13025">
        <ele>855.8</ele>
        <time>2017-08-13T11:09:24Z</time>
      </trkpt>
      <trkpt lat="42.508" lon="-0.13029">
        <ele>855.9</ele>
        <time>2017-08-13T11:09:25Z</time>
      </trkpt>
      <trkpt lat="42.50802" lon="-0.13032">
        <ele>856.1</ele>
        <time>2017-08-13T11:09:26Z</time>
      </trkpt>
      <trkpt lat="42.50804" lon="-0.13035">
        <ele>856.3</ele>
        <time>2017-08-13T11:09:27Z</time>
      </trkpt>
      <trkpt lat="42.50806" lon="-0.13038">
        <ele>856.6</ele>
        <time>2017-08-13T11:09:28Z</time>
      </trkpt>
      <trkpt lat="42.50809" lon="-0.13041">
        <ele>857</ele>
        <time>2017-08-13T11:09:29Z</time>
      </trkpt>
      <trkpt lat="42.50811" lon="-0.13043">
        <ele>857.3</ele>
        <time>2017-08-13T11:09:30Z</time>
      </trkpt>
      <trkpt lat="42.50814" lon="-0.13046">
        <ele>857.6</ele>
        <time>2017-08-13T11:09:31Z</time>
      </trkpt>
      <trkpt lat="42.50816" lon="-0.13049">
        <ele>857.9</ele>
        <time>2017-08-13T11:09:32Z</time>
      </trkpt>
      <trkpt lat="42.50819" lon="-0.13051">
        <ele>858.2</ele>
        <time>2017-08-13T11:09:33Z</time>
      </trkpt>
      <trkpt lat="42.50821" lon="-0.13054">
        <ele>858.4</ele>
        <time>2017-08-13T11:09:34Z</time>
      </trkpt>
      <trkpt lat="42.50823" lon="-0.13056">
        <ele>858.6</ele>
        <time>2017-08-13T11:09:35Z</time>
      </trkpt>
      <trkpt lat="42.50825" lon="-0.13058">
        <ele>858.9</ele>
        <time>2017-08-13T11:09:36Z</time>
      </trkpt>
      <trkpt lat="42.5083" lon="-0.13061">
        <ele>859.6</ele>
        <time>2017-08-13T11:09:38Z</time>
      </trkpt>
      <trkpt lat="42.50833" lon="-0.13063">
        <ele>859.9</ele>
        <time>2017-08-13T11:09:39Z</time>
      </trkpt>
      <trkpt lat="42.50836" lon="-0.13065">
        <ele>860.2</ele>
        <time>2017-08-13T11:09:40Z</time>
      </trkpt>
      <trkpt lat="42.50838" lon="-0.13066">
        <ele>860.4</ele>
        <time>2017-08-13T11:09:41Z</time>
      </trkpt>
      <trkpt lat="42.5084" lon="-0.13069">
        <ele>860.5</ele>
        <time>2017-08-13T11:09:42Z</time>
      </trkpt>
      <trkpt lat="42.50843" lon="-0.13071">
        <ele>860.7</ele>
        <time>2017-08-13T11:09:43Z</time>
      </trkpt>
      <trkpt lat="42.50845" lon="-0.13073">
        <ele>860.8</ele>
        <time>2017-08-13T11:09:44Z</time>
      </trkpt>
      <trkpt lat="42.50847" lon="-0.13076">
        <ele>861</ele>
        <time>2017-08-13T11:09:45Z</time>
      </trkpt>
      <trkpt lat="42.50849" lon="-0.13078">
        <ele>861.4</ele>
        <time>2017-08-13T11:09:46Z</time>
      </trkpt>
      <trkpt lat="42.50851" lon="-0.13081">
        <ele>861.7</ele>
        <time>2017-08-13T11:09:47Z</time>
      </trkpt>
      <trkpt lat="42.50854" lon="-0.13084">
        <ele>862</ele>
        <time>2017-08-13T11:09:48Z</time>
      </trkpt>
      <trkpt lat="42.50856" lon="-0.13087">
        <ele>862.3</ele>
        <time>2017-08-13T11:09:49Z</time>
      </trkpt>
      <trkpt lat="42.50858" lon="-0.13089">
        <ele>862.6</ele>
        <time>2017-08-13T11:09:50Z</time>
      </trkpt>
      <trkpt lat="42.50859" lon="-0.13093">
        <ele>862.8</ele>
        <time>2017-08-13T11:09:51Z</time>
      </trkpt>
      <trkpt lat="42.50861" lon="-0.13096">
        <ele>862.9</ele>
        <time>2017-08-13T11:09:52Z</time>
      </trkpt>
      <trkpt lat="42.50862" lon="-0.13099">
        <ele>863.1</ele>
        <time>2017-08-13T11:09:53Z</time>
      </trkpt>
      <trkpt lat="42.50863" lon="-0.13103">
        <ele>863.2</ele>
        <time>2017-08-13T11:09:54Z</time>
      </trkpt>
      <trkpt lat="42.50865" lon="-0.13107">
        <ele>863.3</ele>
        <time>2017-08-13T11:09:55Z</time>
      </trkpt>
      <trkpt lat="42.50866" lon="-0.13112">
        <ele>863.6</ele>
        <time>2017-08-13T11:09:56Z</time>
      </trkpt>
      <trkpt lat="42.50867" lon="-0.13116">
        <ele>864</ele>
        <time>2017-08-13T11:09:57Z</time>
      </trkpt>
      <trkpt lat="42.50868" lon="-0.1312">
        <ele>864.3</ele>
        <time>2017-08-13T11:09:58Z</time>
      </trkpt>
      <trkpt lat="42.50868" lon="-0.13124">
        <ele>864.6</ele>
        <time>2017-08-13T11:09:59Z</time>
      </trkpt>
      <trkpt lat="42.50869" lon="-0.13128">
        <ele>864.8</ele>
        <time>2017-08-13T11:10:00Z</time>
      </trkpt>
      <trkpt lat="42.50869" lon="-0.13132">
        <ele>864.9</ele>
        <time>2017-08-13T11:10:01Z</time>
      </trkpt>
      <trkpt lat="42.5087" lon="-0.13135">
        <ele>865.1</ele>
        <time>2017-08-13T11:10:02Z</time>
      </trkpt>
      <trkpt lat="42.50871" lon="-0.13139">
        <ele>865.4</ele>
        <time>2017-08-13T11:10:03Z</time>
      </trkpt>
      <trkpt lat="42.50871" lon="-0.13143">
        <ele>865.6</ele>
        <time>2017-08-13T11:10:04Z</time>
      </trkpt>
      <trkpt lat="42.50871" lon="-0.13147">
        <ele>866</ele>
        <time>2017-08-13T11:10:05Z</time>
      </trkpt>
      <trkpt lat="42.50871" lon="-0.13151">
        <ele>866.4</ele>
        <time>2017-08-13T11:10:06Z</time>
      </trkpt>
      <trkpt lat="42.50871" lon="-0.13155">
        <ele>866.7</ele>
        <time>2017-08-13T11:10:07Z</time>
      </trkpt>
      <trkpt lat="42.50871" lon="-0.13158">
        <ele>866.9</ele>
        <time>2017-08-13T11:10:08Z</time>
      </trkpt>
      <trkpt lat="42.50871" lon="-0.13166">
        <ele>867.1</ele>
        <time>2017-08-13T11:10:10Z</time>
      </trkpt>
      <trkpt lat="42.50871" lon="-0.13169">
        <ele>867.1</ele>
        <time>2017-08-13T11:10:11Z</time>
      </trkpt>
      <trkpt lat="42.50872" lon="-0.13173">
        <ele>867.2</ele>
        <time>2017-08-13T11:10:12Z</time>
      </trkpt>
      <trkpt lat="42.50872" lon="-0.13177">
        <ele>867.3</ele>
        <time>2017-08-13T11:10:13Z</time>
      </trkpt>
      <trkpt lat="42.50872" lon="-0.13181">
        <ele>867.4</ele>
        <time>2017-08-13T11:10:14Z</time>
      </trkpt>
      <trkpt lat="42.50873" lon="-0.13185">
        <ele>867.6</ele>
        <time>2017-08-13T11:10:15Z</time>
      </trkpt>
      <trkpt lat="42.50874" lon="-0.13189">
        <ele>867.8</ele>
        <time>2017-08-13T11:10:16Z</time>
      </trkpt>
      <trkpt lat="42.50875" lon="-0.13193">
        <ele>868</ele>
        <time>2017-08-13T11:10:17Z</time>
      </trkpt>
      <trkpt lat="42.50876" lon="-0.13198">
        <ele>868.3</ele>
        <time>2017-08-13T11:10:18Z</time>
      </trkpt>
      <trkpt lat="42.50877" lon="-0.13202">
        <ele>868.6</ele>
        <time>2017-08-13T11:10:19Z</time>
      </trkpt>
      <trkpt lat="42.50878" lon="-0.13207">
        <ele>868.9</ele>
        <time>2017-08-13T11:10:20Z</time>
      </trkpt>
      <trkpt lat="42.50879" lon="-0.13211">
        <ele>869</ele>
        <time>2017-08-13T11:10:21Z</time>
      </trkpt>
      <trkpt lat="42.50879" lon="-0.13216">
        <ele>869.1</ele>
        <time>2017-08-13T11:10:22Z</time>
      </trkpt>
      <trkpt lat="42.50879" lon="-0.1322">
        <ele>869.1</ele>
        <time>2017-08-13T11:10:23Z</time>
      </trkpt>
      <trkpt lat="42.50878" lon="-0.13224">
        <ele>869.2</ele>
        <time>2017-08-13T11:10:24Z</time>
      </trkpt>
      <trkpt lat="42.50879" lon="-0.13229">
        <ele>869.2</ele>
        <time>2017-08-13T11:10:25Z</time>
      </trkpt>
      <trkpt lat="42.50879" lon="-0.13233">
        <ele>869.3</ele>
        <time>2017-08-13T11:10:26Z</time>
      </trkpt>
      <trkpt lat="42.5088" lon="-0.13238">
        <ele>869.3</ele>
        <time>2017-08-13T11:10:27Z</time>
      </trkpt>
      <trkpt lat="42.5088" lon="-0.13242">
        <ele>869.4</ele>
        <time>2017-08-13T11:10:28Z</time>
      </trkpt>
      <trkpt lat="42.50881" lon="-0.13246">
        <ele>869.4</ele>
        <time>2017-08-13T11:10:29Z</time>
      </trkpt>
      <trkpt lat="42.50882" lon="-0.1325">
        <ele>869.4</ele>
        <time>2017-08-13T11:10:30Z</time>
      </trkpt>
      <trkpt lat="42.50883" lon="-0.13253">
        <ele>869.5</ele>
        <time>2017-08-13T11:10:31Z</time>
      </trkpt>
      <trkpt lat="42.50884" lon="-0.13257">
        <ele>869.5</ele>
        <time>2017-08-13T11:10:32Z</time>
      </trkpt>
      <trkpt lat="42.50885" lon="-0.13261">
        <ele>869.6</ele>
        <time>2017-08-13T11:10:33Z</time>
      </trkpt>
      <trkpt lat="42.50886" lon="-0.13264">
        <ele>869.6</ele>
        <time>2017-08-13T11:10:34Z</time>
      </trkpt>
      <trkpt lat="42.50889" lon="-0.13267">
        <ele>869.7</ele>
        <time>2017-08-13T11:10:35Z</time>
      </trkpt>
      <trkpt lat="42.50892" lon="-0.13269">
        <ele>869.8</ele>
        <time>2017-08-13T11:10:36Z</time>
      </trkpt>
      <trkpt lat="42.50896" lon="-0.13269">
        <ele>869.8</ele>
        <time>2017-08-13T11:10:37Z</time>
      </trkpt>
      <trkpt lat="42.509" lon="-0.13268">
        <ele>869.9</ele>
        <time>2017-08-13T11:10:38Z</time>
      </trkpt>
      <trkpt lat="42.50903" lon="-0.13265">
        <ele>870</ele>
        <time>2017-08-13T11:10:39Z</time>
      </trkpt>
      <trkpt lat="42.50905" lon="-0.13261">
        <ele>870.2</ele>
        <time>2017-08-13T11:10:40Z</time>
      </trkpt>
      <trkpt lat="42.50907" lon="-0.13257">
        <ele>870.5</ele>
        <time>2017-08-13T11:10:41Z</time>
      </trkpt>
      <trkpt lat="42.50909" lon="-0.13253">
        <ele>870.7</ele>
        <time>2017-08-13T11:10:42Z</time>
      </trkpt>
      <trkpt lat="42.50911" lon="-0.13249">
        <ele>871</ele>
        <time>2017-08-13T11:10:43Z</time>
      </trkpt>
      <trkpt lat="42.50913" lon="-0.13245">
        <ele>871.2</ele>
        <time>2017-08-13T11:10:44Z</time>
      </trkpt>
      <trkpt lat="42.50915" lon="-0.13242">
        <ele>871.4</ele>
        <time>2017-08-13T11:10:45Z</time>
      </trkpt>
      <trkpt lat="42.50917" lon="-0.13238">
        <ele>871.5</ele>
        <time>2017-08-13T11:10:46Z</time>
      </trkpt>
      <trkpt lat="42.50919" lon="-0.13235">
        <ele>871.6</ele>
        <time>2017-08-13T11:10:47Z</time>
      </trkpt>
      <trkpt lat="42.50922" lon="-0.13232">
        <ele>871.7</ele>
        <time>2017-08-13T11:10:48Z</time>
      </trkpt>
      <trkpt lat="42.50924" lon="-0.13229">
        <ele>871.7</ele>
        <time>2017-08-13T11:10:49Z</time>
      </trkpt>
      <trkpt lat="42.50927" lon="-0.13226">
        <ele>871.8</ele>
        <time>2017-08-13T11:10:50Z</time>
      </trkpt>
      <trkpt lat="42.50929" lon="-0.13223">
        <ele>871.9</ele>
        <time>2017-08-13T11:10:51Z</time>
      </trkpt>
      <trkpt lat="42.50932" lon="-0.1322">
        <ele>871.9</ele>
        <time>2017-08-13T11:10:52Z</time>
      </trkpt>
      <trkpt lat="42.50935" lon="-0.13218">
        <ele>872</ele>
        <time>2017-08-13T11:10:53Z</time>
      </trkpt>
      <trkpt lat="42.50938" lon="-0.13215">
        <ele>872</ele>
        <time>2017-08-13T11:10:54Z</time>
      </trkpt>
      <trkpt lat="42.50941" lon="-0.13212">
        <ele>872</ele>
        <time>2017-08-13T11:10:55Z</time>
      </trkpt>
      <trkpt lat="42.50945" lon="-0.13209">
        <ele>872</ele>
        <time>2017-08-13T11:10:56Z</time>
      </trkpt>
      <trkpt lat="42.50949" lon="-0.13206">
        <ele>872</ele>
        <time>2017-08-13T11:10:57Z</time>
      </trkpt>
      <trkpt lat="42.50952" lon="-0.13203">
        <ele>872</ele>
        <time>2017-08-13T11:10:58Z</time>
      </trkpt>
      <trkpt lat="42.50956" lon="-0.13199">
        <ele>872</ele>
        <time>2017-08-13T11:10:59Z</time>
      </trkpt>
      <trkpt lat="42.5096" lon="-0.13196">
        <ele>872</ele>
        <time>2017-08-13T11:11:00Z</time>
      </trkpt>
      <trkpt lat="42.50963" lon="-0.13191">
        <ele>872</ele>
        <time>2017-08-13T11:11:01Z</time>
      </trkpt>
      <trkpt lat="42.50967" lon="-0.13187">
        <ele>872</ele>
        <time>2017-08-13T11:11:02Z</time>
      </trkpt>
      <trkpt lat="42.50971" lon="-0.13182">
        <ele>872</ele>
        <time>2017-08-13T11:11:03Z</time>
      </trkpt>
      <trkpt lat="42.50975" lon="-0.13177">
        <ele>872</ele>
        <time>2017-08-13T11:11:04Z</time>
      </trkpt>
      <trkpt lat="42.5098" lon="-0.13173">
        <ele>872</ele>
        <time>2017-08-13T11:11:05Z</time>
      </trkpt>
      <trkpt lat="42.50986" lon="-0.1317">
        <ele>872</ele>
        <time>2017-08-13T11:11:06Z</time>
      </trkpt>
      <trkpt lat="42.50992" lon="-0.13169">
        <ele>872</ele>
        <time>2017-08-13T11:11:07Z</time>
      </trkpt>
      <trkpt lat="42.50999" lon="-0.13169">
        <ele>872</ele>
        <time>2017-08-13T11:11:08Z</time>
      </trkpt>
      <trkpt lat="42.51006" lon="-0.13171">
        <ele>872</ele>
        <time>2017-08-13T11:11:09Z</time>
      </trkpt>
      <trkpt lat="42.51013" lon="-0.13173">
        <ele>871.9</ele>
        <time>2017-08-13T11:11:10Z</time>
      </trkpt>
      <trkpt lat="42.51021" lon="-0.1318">
        <ele>871.8</ele>
        <time>2017-08-13T11:11:11Z</time>
      </trkpt>
      <trkpt lat="42.51028" lon="-0.13181">
        <ele>871.7</ele>
        <time>2017-08-13T11:11:12Z</time>
      </trkpt>
      <trkpt lat="42.51036" lon="-0.13183">
        <ele>871.6</ele>
        <time>2017-08-13T11:11:13Z</time>
      </trkpt>
      <trkpt lat="42.51043" lon="-0.13185">
        <ele>871.4</ele>
        <time>2017-08-13T11:11:14Z</time>
      </trkpt>
      <trkpt lat="42.51051" lon="-0.13186">
        <ele>871.1</ele>
        <time>2017-08-13T11:11:15Z</time>
      </trkpt>
      <trkpt lat="42.51059" lon="-0.13187">
        <ele>870.8</ele>
        <time>2017-08-13T11:11:16Z</time>
      </trkpt>
      <trkpt lat="42.51067" lon="-0.13186">
        <ele>870.4</ele>
        <time>2017-08-13T11:11:17Z</time>
      </trkpt>
      <trkpt lat="42.51075" lon="-0.13186">
        <ele>870.1</ele>
        <time>2017-08-13T11:11:18Z</time>
      </trkpt>
      <trkpt lat="42.51082" lon="-0.13185">
        <ele>869.7</ele>
        <time>2017-08-13T11:11:19Z</time>
      </trkpt>
      <trkpt lat="42.51091" lon="-0.13184">
        <ele>869.4</ele>
        <time>2017-08-13T11:11:20Z</time>
      </trkpt>
      <trkpt lat="42.51099" lon="-0.13183">
        <ele>868.9</ele>
        <time>2017-08-13T11:11:21Z</time>
      </trkpt>
      <trkpt lat="42.51108" lon="-0.13182">
        <ele>868.5</ele>
        <time>2017-08-13T11:11:22Z</time>
      </trkpt>
      <trkpt lat="42.51117" lon="-0.13182">
        <ele>868.1</ele>
        <time>2017-08-13T11:11:23Z</time>
      </trkpt>
      <trkpt lat="42.51126" lon="-0.13184">
        <ele>867.6</ele>
        <time>2017-08-13T11:11:24Z</time>
      </trkpt>
      <trkpt lat="42.51135" lon="-0.13187">
        <ele>867.1</ele>
        <time>2017-08-13T11:11:25Z</time>
      </trkpt>
      <trkpt lat="42.51144" lon="-0.13191">
        <ele>866.5</ele>
        <time>2017-08-13T11:11:26Z</time>
      </trkpt>
      <trkpt lat="42.51153" lon="-0.13195">
        <ele>866</ele>
        <time>2017-08-13T11:11:27Z</time>
      </trkpt>
      <trkpt lat="42.5116" lon="-0.13198">
        <ele>865.4</ele>
        <time>2017-08-13T11:11:28Z</time>
      </trkpt>
      <trkpt lat="42.51167" lon="-0.13201">
        <ele>864.8</ele>
        <time>2017-08-13T11:11:29Z</time>
      </trkpt>
      <trkpt lat="42.51175" lon="-0.13204">
        <ele>864.1</ele>
        <time>2017-08-13T11:11:30Z</time>
      </trkpt>
      <trkpt lat="42.51181" lon="-0.13205">
        <ele>863.6</ele>
        <time>2017-08-13T11:11:31Z</time>
      </trkpt>
      <trkpt lat="42.51187" lon="-0.13206">
        <ele>863.1</ele>
        <time>2017-08-13T11:11:32Z</time>
      </trkpt>
      <trkpt lat="42.51193" lon="-0.13206">
        <ele>862.6</ele>
        <time>2017-08-13T11:11:33Z</time>
      </trkpt>
      <trkpt lat="42.51199" lon="-0.13206">
        <ele>862.1</ele>
        <time>2017-08-13T11:11:34Z</time>
      </trkpt>
      <trkpt lat="42.51203" lon="-0.13205">
        <ele>861.8</ele>
        <time>2017-08-13T11:11:35Z</time>
      </trkpt>
      <trkpt lat="42.51207" lon="-0.13204">
        <ele>861.6</ele>
        <time>2017-08-13T11:11:36Z</time>
      </trkpt>
      <trkpt lat="42.51211" lon="-0.132">
        <ele>861.2</ele>
        <time>2017-08-13T11:11:38Z</time>
      </trkpt>
      <trkpt lat="42.51212" lon="-0.13197">
        <ele>861</ele>
        <time>2017-08-13T11:11:40Z</time>
      </trkpt>
      <trkpt lat="42.51212" lon="-0.13193">
        <ele>860.1</ele>
        <time>2017-08-13T11:11:59Z</time>
      </trkpt>
      <trkpt lat="42.51213" lon="-0.13189">
        <ele>858.5</ele>
        <time>2017-08-13T11:12:18Z</time>
      </trkpt>
      <trkpt lat="42.51216" lon="-0.13185">
        <ele>857</ele>
        <time>2017-08-13T11:12:23Z</time>
      </trkpt>
      <trkpt lat="42.51217" lon="-0.13182">
        <ele>856</ele>
        <time>2017-08-13T11:12:29Z</time>
      </trkpt>
      <trkpt lat="42.51214" lon="-0.13178">
        <ele>855.7</ele>
        <time>2017-08-13T11:12:32Z</time>
      </trkpt>
      <trkpt lat="42.51211" lon="-0.13176">
        <ele>856.2</ele>
        <time>2017-08-13T11:12:34Z</time>
      </trkpt>
      <trkpt lat="42.51208" lon="-0.13173">
        <ele>855.8</ele>
        <time>2017-08-13T11:12:36Z</time>
      </trkpt>
      <trkpt lat="42.51205" lon="-0.13173">
        <ele>856.2</ele>
        <time>2017-08-13T11:12:38Z</time>
      </trkpt>
      <trkpt lat="42.51199" lon="-0.13175">
        <ele>857.9</ele>
        <time>2017-08-13T11:12:40Z</time>
      </trkpt>
      <trkpt lat="42.51195" lon="-0.13177">
        <ele>858.1</ele>
        <time>2017-08-13T11:12:41Z</time>
      </trkpt>
      <trkpt lat="42.51192" lon="-0.13177">
        <ele>858.3</ele>
        <time>2017-08-13T11:12:42Z</time>
      </trkpt>
      <trkpt lat="42.51189" lon="-0.13177">
        <ele>858.5</ele>
        <time>2017-08-13T11:12:43Z</time>
      </trkpt>
      <trkpt lat="42.51186" lon="-0.13174">
        <ele>857.5</ele>
        <time>2017-08-13T11:12:45Z</time>
      </trkpt>
      <trkpt lat="42.51181" lon="-0.13171">
        <ele>857.7</ele>
        <time>2017-08-13T11:12:47Z</time>
      </trkpt>
      <trkpt lat="42.51178" lon="-0.13169">
        <ele>856.7</ele>
        <time>2017-08-13T11:12:48Z</time>
      </trkpt>
      <trkpt lat="42.51175" lon="-0.13168">
        <ele>856.9</ele>
        <time>2017-08-13T11:12:49Z</time>
      </trkpt>
      <trkpt lat="42.51172" lon="-0.13166">
        <ele>855.8</ele>
        <time>2017-08-13T11:12:50Z</time>
      </trkpt>
      <trkpt lat="42.51169" lon="-0.13165">
        <ele>855.8</ele>
        <time>2017-08-13T11:12:51Z</time>
      </trkpt>
      <trkpt lat="42.51165" lon="-0.13164">
        <ele>855.8</ele>
        <time>2017-08-13T11:12:52Z</time>
      </trkpt>
      <trkpt lat="42.51161" lon="-0.13163">
        <ele>855.6</ele>
        <time>2017-08-13T11:12:53Z</time>
      </trkpt>
      <trkpt lat="42.51157" lon="-0.13162">
        <ele>854.2</ele>
        <time>2017-08-13T11:12:54Z</time>
      </trkpt>
      <trkpt lat="42.51153" lon="-0.13162">
        <ele>854.1</ele>
        <time>2017-08-13T11:12:55Z</time>
      </trkpt>
      <trkpt lat="42.51149" lon="-0.13162">
        <ele>854</ele>
        <time>2017-08-13T11:12:56Z</time>
      </trkpt>
      <trkpt lat="42.51145" lon="-0.13162">
        <ele>855.4</ele>
        <time>2017-08-13T11:12:57Z</time>
      </trkpt>
      <trkpt lat="42.51142" lon="-0.13162">
        <ele>855.4</ele>
        <time>2017-08-13T11:12:58Z</time>
      </trkpt>
      <trkpt lat="42.51138" lon="-0.13162">
        <ele>853.7</ele>
        <time>2017-08-13T11:12:59Z</time>
      </trkpt>
      <trkpt lat="42.51135" lon="-0.1316">
        <ele>853.7</ele>
        <time>2017-08-13T11:13:00Z</time>
      </trkpt>
      <trkpt lat="42.51131" lon="-0.13158">
        <ele>853.6</ele>
        <time>2017-08-13T11:13:01Z</time>
      </trkpt>
      <trkpt lat="42.51128" lon="-0.13156">
        <ele>851.7</ele>
        <time>2017-08-13T11:13:02Z</time>
      </trkpt>
      <trkpt lat="42.51125" lon="-0.13155">
        <ele>851.6</ele>
        <time>2017-08-13T11:13:03Z</time>
      </trkpt>
      <trkpt lat="42.51122" lon="-0.13153">
        <ele>849.5</ele>
        <time>2017-08-13T11:13:04Z</time>
      </trkpt>
      <trkpt lat="42.51119" lon="-0.13152">
        <ele>849.6</ele>
        <time>2017-08-13T11:13:05Z</time>
      </trkpt>
      <trkpt lat="42.51116" lon="-0.1315">
        <ele>849.7</ele>
        <time>2017-08-13T11:13:06Z</time>
      </trkpt>
      <trkpt lat="42.51113" lon="-0.13149">
        <ele>847.8</ele>
        <time>2017-08-13T11:13:07Z</time>
      </trkpt>
      <trkpt lat="42.5111" lon="-0.13147">
        <ele>848</ele>
        <time>2017-08-13T11:13:08Z</time>
      </trkpt>
      <trkpt lat="42.51107" lon="-0.13145">
        <ele>848.4</ele>
        <time>2017-08-13T11:13:09Z</time>
      </trkpt>
      <trkpt lat="42.51104" lon="-0.13143">
        <ele>847.1</ele>
        <time>2017-08-13T11:13:10Z</time>
      </trkpt>
      <trkpt lat="42.51101" lon="-0.13142">
        <ele>847.7</ele>
        <time>2017-08-13T11:13:11Z</time>
      </trkpt>
      <trkpt lat="42.51097" lon="-0.1314">
        <ele>846.9</ele>
        <time>2017-08-13T11:13:12Z</time>
      </trkpt>
      <trkpt lat="42.51094" lon="-0.1314">
        <ele>847.6</ele>
        <time>2017-08-13T11:13:13Z</time>
      </trkpt>
      <trkpt lat="42.5109" lon="-0.13139">
        <ele>848.3</ele>
        <time>2017-08-13T11:13:14Z</time>
      </trkpt>
      <trkpt lat="42.51087" lon="-0.13139">
        <ele>848.9</ele>
        <time>2017-08-13T11:13:15Z</time>
      </trkpt>
      <trkpt lat="42.51084" lon="-0.1314">
        <ele>849.5</ele>
        <time>2017-08-13T11:13:16Z</time>
      </trkpt>
      <trkpt lat="42.51081" lon="-0.1314">
        <ele>850.1</ele>
        <time>2017-08-13T11:13:17Z</time>
      </trkpt>
      <trkpt lat="42.51078" lon="-0.1314">
        <ele>850.6</ele>
        <time>2017-08-13T11:13:18Z</time>
      </trkpt>
      <trkpt lat="42.51075" lon="-0.1314">
        <ele>851.1</ele>
        <time>2017-08-13T11:13:19Z</time>
      </trkpt>
      <trkpt lat="42.51072" lon="-0.13139">
        <ele>851.5</ele>
        <time>2017-08-13T11:13:20Z</time>
      </trkpt>
      <trkpt lat="42.51069" lon="-0.13139">
        <ele>851.9</ele>
        <time>2017-08-13T11:13:21Z</time>
      </trkpt>
      <trkpt lat="42.51065" lon="-0.13139">
        <ele>852.3</ele>
        <time>2017-08-13T11:13:22Z</time>
      </trkpt>
      <trkpt lat="42.51062" lon="-0.13138">
        <ele>852.7</ele>
        <time>2017-08-13T11:13:23Z</time>
      </trkpt>
      <trkpt lat="42.51059" lon="-0.13136">
        <ele>851.9</ele>
        <time>2017-08-13T11:13:24Z</time>
      </trkpt>
      <trkpt lat="42.51056" lon="-0.13135">
        <ele>852.3</ele>
        <time>2017-08-13T11:13:25Z</time>
      </trkpt>
      <trkpt lat="42.51053" lon="-0.13134">
        <ele>852.7</ele>
        <time>2017-08-13T11:13:26Z</time>
      </trkpt>
      <trkpt lat="42.51048" lon="-0.13133">
        <ele>853.2</ele>
        <time>2017-08-13T11:13:28Z</time>
      </trkpt>
      <trkpt lat="42.51045" lon="-0.13131">
        <ele>852.6</ele>
        <time>2017-08-13T11:13:30Z</time>
      </trkpt>
      <trkpt lat="42.5104" lon="-0.13129">
        <ele>853</ele>
        <time>2017-08-13T11:13:32Z</time>
      </trkpt>
      <trkpt lat="42.51037" lon="-0.13128">
        <ele>851.5</ele>
        <time>2017-08-13T11:13:33Z</time>
      </trkpt>
      <trkpt lat="42.51034" lon="-0.13127">
        <ele>851.8</ele>
        <time>2017-08-13T11:13:34Z</time>
      </trkpt>
      <trkpt lat="42.51031" lon="-0.13126">
        <ele>852.1</ele>
        <time>2017-08-13T11:13:35Z</time>
      </trkpt>
      <trkpt lat="42.51028" lon="-0.13125">
        <ele>852.4</ele>
        <time>2017-08-13T11:13:36Z</time>
      </trkpt>
      <trkpt lat="42.51024" lon="-0.13123">
        <ele>850.6</ele>
        <time>2017-08-13T11:13:38Z</time>
      </trkpt>
      <trkpt lat="42.51019" lon="-0.1312">
        <ele>851.4</ele>
        <time>2017-08-13T11:13:40Z</time>
      </trkpt>
      <trkpt lat="42.51015" lon="-0.13117">
        <ele>849.9</ele>
        <time>2017-08-13T11:13:42Z</time>
      </trkpt>
      <trkpt lat="42.51012" lon="-0.13114">
        <ele>848.7</ele>
        <time>2017-08-13T11:13:43Z</time>
      </trkpt>
      <trkpt lat="42.5101" lon="-0.13112">
        <ele>849.2</ele>
        <time>2017-08-13T11:13:44Z</time>
      </trkpt>
      <trkpt lat="42.51008" lon="-0.1311">
        <ele>847.5</ele>
        <time>2017-08-13T11:13:45Z</time>
      </trkpt>
      <trkpt lat="42.51005" lon="-0.13107">
        <ele>847.9</ele>
        <time>2017-08-13T11:13:46Z</time>
      </trkpt>
      <trkpt lat="42.51003" lon="-0.13105">
        <ele>846.3</ele>
        <time>2017-08-13T11:13:47Z</time>
      </trkpt>
      <trkpt lat="42.51" lon="-0.13102">
        <ele>846.5</ele>
        <time>2017-08-13T11:13:48Z</time>
      </trkpt>
      <trkpt lat="42.50996" lon="-0.131">
        <ele>844.4</ele>
        <time>2017-08-13T11:13:49Z</time>
      </trkpt>
      <trkpt lat="42.50994" lon="-0.13097">
        <ele>842.3</ele>
        <time>2017-08-13T11:13:50Z</time>
      </trkpt>
      <trkpt lat="42.50991" lon="-0.13094">
        <ele>842.5</ele>
        <time>2017-08-13T11:13:51Z</time>
      </trkpt>
      <trkpt lat="42.50988" lon="-0.13092">
        <ele>840.8</ele>
        <time>2017-08-13T11:13:52Z</time>
      </trkpt>
      <trkpt lat="42.50985" lon="-0.13089">
        <ele>838.9</ele>
        <time>2017-08-13T11:13:53Z</time>
      </trkpt>
      <trkpt lat="42.50983" lon="-0.13085">
        <ele>839.3</ele>
        <time>2017-08-13T11:13:54Z</time>
      </trkpt>
      <trkpt lat="42.50981" lon="-0.13082">
        <ele>838.2</ele>
        <time>2017-08-13T11:13:55Z</time>
      </trkpt>
      <trkpt lat="42.50978" lon="-0.13079">
        <ele>837.2</ele>
        <time>2017-08-13T11:13:56Z</time>
      </trkpt>
      <trkpt lat="42.50977" lon="-0.13076">
        <ele>835.6</ele>
        <time>2017-08-13T11:13:57Z</time>
      </trkpt>
      <trkpt lat="42.50974" lon="-0.1307">
        <ele>834.3</ele>
        <time>2017-08-13T11:13:59Z</time>
      </trkpt>
      <trkpt lat="42.50973" lon="-0.13066">
        <ele>832.6</ele>
        <time>2017-08-13T11:14:00Z</time>
      </trkpt>
      <trkpt lat="42.50973" lon="-0.13063">
        <ele>830.9</ele>
        <time>2017-08-13T11:14:01Z</time>
      </trkpt>
      <trkpt lat="42.50971" lon="-0.13056">
        <ele>829.7</ele>
        <time>2017-08-13T11:14:03Z</time>
      </trkpt>
      <trkpt lat="42.5097" lon="-0.1305">
        <ele>826.6</ele>
        <time>2017-08-13T11:14:05Z</time>
      </trkpt>
      <trkpt lat="42.50968" lon="-0.13044">
        <ele>825.4</ele>
        <time>2017-08-13T11:14:07Z</time>
      </trkpt>
      <trkpt lat="42.50966" lon="-0.1304">
        <ele>823.6</ele>
        <time>2017-08-13T11:14:09Z</time>
      </trkpt>
      <trkpt lat="42.50963" lon="-0.13037">
        <ele>822.7</ele>
        <time>2017-08-13T11:14:11Z</time>
      </trkpt>
      <trkpt lat="42.5096" lon="-0.13034">
        <ele>823.4</ele>
        <time>2017-08-13T11:14:14Z</time>
      </trkpt>
      <trkpt lat="42.50958" lon="-0.13031">
        <ele>822.8</ele>
        <time>2017-08-13T11:14:17Z</time>
      </trkpt>
      <trkpt lat="42.50955" lon="-0.13029">
        <ele>822.4</ele>
        <time>2017-08-13T11:14:24Z</time>
      </trkpt>
      <trkpt lat="42.50952" lon="-0.13028">
        <ele>823.2</ele>
        <time>2017-08-13T11:14:37Z</time>
      </trkpt>
      <trkpt lat="42.50948" lon="-0.13032">
        <ele>824.9</ele>
        <time>2017-08-13T11:14:39Z</time>
      </trkpt>
      <trkpt lat="42.50946" lon="-0.13035">
        <ele>826.7</ele>
        <time>2017-08-13T11:14:40Z</time>
      </trkpt>
      <trkpt lat="42.50944" lon="-0.13038">
        <ele>828</ele>
        <time>2017-08-13T11:14:41Z</time>
      </trkpt>
      <trkpt lat="42.50941" lon="-0.13041">
        <ele>828.5</ele>
        <time>2017-08-13T11:14:42Z</time>
      </trkpt>
      <trkpt lat="42.50938" lon="-0.13042">
        <ele>828.9</ele>
        <time>2017-08-13T11:14:43Z</time>
      </trkpt>
      <trkpt lat="42.50935" lon="-0.13041">
        <ele>829.3</ele>
        <time>2017-08-13T11:14:44Z</time>
      </trkpt>
      <trkpt lat="42.50932" lon="-0.13038">
        <ele>829.8</ele>
        <time>2017-08-13T11:14:46Z</time>
      </trkpt>
      <trkpt lat="42.50932" lon="-0.13031">
        <ele>827.6</ele>
        <time>2017-08-13T11:14:48Z</time>
      </trkpt>
      <trkpt lat="42.50932" lon="-0.13027">
        <ele>826.7</ele>
        <time>2017-08-13T11:14:49Z</time>
      </trkpt>
      <trkpt lat="42.50932" lon="-0.13021">
        <ele>825.7</ele>
        <time>2017-08-13T11:14:50Z</time>
      </trkpt>
      <trkpt lat="42.50932" lon="-0.13016">
        <ele>823.6</ele>
        <time>2017-08-13T11:14:51Z</time>
      </trkpt>
      <trkpt lat="42.50932" lon="-0.1301">
        <ele>822.6</ele>
        <time>2017-08-13T11:14:52Z</time>
      </trkpt>
      <trkpt lat="42.5093" lon="-0.13005">
        <ele>822.3</ele>
        <time>2017-08-13T11:14:53Z</time>
      </trkpt>
      <trkpt lat="42.50928" lon="-0.13">
        <ele>822.1</ele>
        <time>2017-08-13T11:14:54Z</time>
      </trkpt>
      <trkpt lat="42.50925" lon="-0.12997">
        <ele>821.3</ele>
        <time>2017-08-13T11:14:55Z</time>
      </trkpt>
      <trkpt lat="42.50922" lon="-0.12995">
        <ele>821.2</ele>
        <time>2017-08-13T11:14:56Z</time>
      </trkpt>
      <trkpt lat="42.50917" lon="-0.12994">
        <ele>821.6</ele>
        <time>2017-08-13T11:14:57Z</time>
      </trkpt>
      <trkpt lat="42.50913" lon="-0.12994">
        <ele>822</ele>
        <time>2017-08-13T11:14:58Z</time>
      </trkpt>
      <trkpt lat="42.5091" lon="-0.12994">
        <ele>822.4</ele>
        <time>2017-08-13T11:14:59Z</time>
      </trkpt>
      <trkpt lat="42.50906" lon="-0.12994">
        <ele>822.9</ele>
        <time>2017-08-13T11:15:00Z</time>
      </trkpt>
      <trkpt lat="42.50903" lon="-0.12993">
        <ele>823.4</ele>
        <time>2017-08-13T11:15:01Z</time>
      </trkpt>
      <trkpt lat="42.50901" lon="-0.1299">
        <ele>822.3</ele>
        <time>2017-08-13T11:15:02Z</time>
      </trkpt>
      <trkpt lat="42.50901" lon="-0.12986">
        <ele>820.5</ele>
        <time>2017-08-13T11:15:03Z</time>
      </trkpt>
      <trkpt lat="42.50901" lon="-0.12981">
        <ele>818.7</ele>
        <time>2017-08-13T11:15:04Z</time>
      </trkpt>
      <trkpt lat="42.50902" lon="-0.12976">
        <ele>817.1</ele>
        <time>2017-08-13T11:15:05Z</time>
      </trkpt>
      <trkpt lat="42.50905" lon="-0.12971">
        <ele>815.4</ele>
        <time>2017-08-13T11:15:06Z</time>
      </trkpt>
      <trkpt lat="42.50908" lon="-0.12967">
        <ele>814</ele>
        <time>2017-08-13T11:15:07Z</time>
      </trkpt>
      <trkpt lat="42.50912" lon="-0.12963">
        <ele>812.7</ele>
        <time>2017-08-13T11:15:08Z</time>
      </trkpt>
      <trkpt lat="42.50914" lon="-0.1296">
        <ele>811.5</ele>
        <time>2017-08-13T11:15:09Z</time>
      </trkpt>
      <trkpt lat="42.50918" lon="-0.12957">
        <ele>811.7</ele>
        <time>2017-08-13T11:15:11Z</time>
      </trkpt>
      <trkpt lat="42.50919" lon="-0.12952">
        <ele>810.7</ele>
        <time>2017-08-13T11:15:14Z</time>
      </trkpt>
      <trkpt lat="42.50915" lon="-0.12948">
        <ele>809.2</ele>
        <time>2017-08-13T11:15:16Z</time>
      </trkpt>
      <trkpt lat="42.50911" lon="-0.12947">
        <ele>807.9</ele>
        <time>2017-08-13T11:15:17Z</time>
      </trkpt>
      <trkpt lat="42.50907" lon="-0.12945">
        <ele>807.6</ele>
        <time>2017-08-13T11:15:18Z</time>
      </trkpt>
      <trkpt lat="42.50904" lon="-0.12944">
        <ele>807.3</ele>
        <time>2017-08-13T11:15:19Z</time>
      </trkpt>
      <trkpt lat="42.50901" lon="-0.12942">
        <ele>806</ele>
        <time>2017-08-13T11:15:20Z</time>
      </trkpt>
      <trkpt lat="42.50899" lon="-0.1294">
        <ele>805.8</ele>
        <time>2017-08-13T11:15:21Z</time>
      </trkpt>
      <trkpt lat="42.50896" lon="-0.12937">
        <ele>804.4</ele>
        <time>2017-08-13T11:15:22Z</time>
      </trkpt>
      <trkpt lat="42.50894" lon="-0.12935">
        <ele>804.4</ele>
        <time>2017-08-13T11:15:23Z</time>
      </trkpt>
      <trkpt lat="42.5089" lon="-0.12932">
        <ele>803.1</ele>
        <time>2017-08-13T11:15:25Z</time>
      </trkpt>
      <trkpt lat="42.50887" lon="-0.1293">
        <ele>802</ele>
        <time>2017-08-13T11:15:26Z</time>
      </trkpt>
      <trkpt lat="42.50883" lon="-0.12928">
        <ele>802</ele>
        <time>2017-08-13T11:15:27Z</time>
      </trkpt>
      <trkpt lat="42.5088" lon="-0.12926">
        <ele>801.1</ele>
        <time>2017-08-13T11:15:28Z</time>
      </trkpt>
      <trkpt lat="42.50876" lon="-0.12923">
        <ele>801.2</ele>
        <time>2017-08-13T11:15:29Z</time>
      </trkpt>
      <trkpt lat="42.50872" lon="-0.12921">
        <ele>800.5</ele>
        <time>2017-08-13T11:15:30Z</time>
      </trkpt>
      <trkpt lat="42.50869" lon="-0.12919">
        <ele>800.7</ele>
        <time>2017-08-13T11:15:31Z</time>
      </trkpt>
      <trkpt lat="42.50866" lon="-0.12917">
        <ele>800.1</ele>
        <time>2017-08-13T11:15:32Z</time>
      </trkpt>
      <trkpt lat="42.50863" lon="-0.12915">
        <ele>800.4</ele>
        <time>2017-08-13T11:15:33Z</time>
      </trkpt>
      <trkpt lat="42.50859" lon="-0.12912">
        <ele>799.8</ele>
        <time>2017-08-13T11:15:34Z</time>
      </trkpt>
      <trkpt lat="42.50856" lon="-0.12909">
        <ele>799.4</ele>
        <time>2017-08-13T11:15:35Z</time>
      </trkpt>
      <trkpt lat="42.50853" lon="-0.12906">
        <ele>799.9</ele>
        <time>2017-08-13T11:15:36Z</time>
      </trkpt>
      <trkpt lat="42.5085" lon="-0.12905">
        <ele>800.5</ele>
        <time>2017-08-13T11:15:37Z</time>
      </trkpt>
      <trkpt lat="42.50847" lon="-0.12905">
        <ele>801.1</ele>
        <time>2017-08-13T11:15:38Z</time>
      </trkpt>
      <trkpt lat="42.50843" lon="-0.12906">
        <ele>802.6</ele>
        <time>2017-08-13T11:15:39Z</time>
      </trkpt>
      <trkpt lat="42.50838" lon="-0.12907">
        <ele>803.4</ele>
        <time>2017-08-13T11:15:40Z</time>
      </trkpt>
      <trkpt lat="42.50834" lon="-0.12908">
        <ele>804.1</ele>
        <time>2017-08-13T11:15:41Z</time>
      </trkpt>
      <trkpt lat="42.5083" lon="-0.12908">
        <ele>805.5</ele>
        <time>2017-08-13T11:15:42Z</time>
      </trkpt>
      <trkpt lat="42.50826" lon="-0.12907">
        <ele>806.2</ele>
        <time>2017-08-13T11:15:43Z</time>
      </trkpt>
      <trkpt lat="42.50823" lon="-0.12904">
        <ele>805.7</ele>
        <time>2017-08-13T11:15:44Z</time>
      </trkpt>
      <trkpt lat="42.5082" lon="-0.12901">
        <ele>806.5</ele>
        <time>2017-08-13T11:15:45Z</time>
      </trkpt>
      <trkpt lat="42.50818" lon="-0.12898">
        <ele>805.2</ele>
        <time>2017-08-13T11:15:46Z</time>
      </trkpt>
      <trkpt lat="42.50815" lon="-0.12895">
        <ele>804.6</ele>
        <time>2017-08-13T11:15:47Z</time>
      </trkpt>
      <trkpt lat="42.50813" lon="-0.12892">
        <ele>804</ele>
        <time>2017-08-13T11:15:48Z</time>
      </trkpt>
      <trkpt lat="42.5081" lon="-0.12889">
        <ele>804.3</ele>
        <time>2017-08-13T11:15:49Z</time>
      </trkpt>
      <trkpt lat="42.50808" lon="-0.12887">
        <ele>803.5</ele>
        <time>2017-08-13T11:15:50Z</time>
      </trkpt>
      <trkpt lat="42.50804" lon="-0.12886">
        <ele>803.6</ele>
        <time>2017-08-13T11:15:51Z</time>
      </trkpt>
      <trkpt lat="42.508" lon="-0.12884">
        <ele>803.9</ele>
        <time>2017-08-13T11:15:52Z</time>
      </trkpt>
      <trkpt lat="42.50797" lon="-0.12883">
        <ele>802.9</ele>
        <time>2017-08-13T11:15:53Z</time>
      </trkpt>
      <trkpt lat="42.50793" lon="-0.12881">
        <ele>803.3</ele>
        <time>2017-08-13T11:15:54Z</time>
      </trkpt>
      <trkpt lat="42.5079" lon="-0.1288">
        <ele>803.8</ele>
        <time>2017-08-13T11:15:55Z</time>
      </trkpt>
      <trkpt lat="42.50788" lon="-0.12879">
        <ele>802.9</ele>
        <time>2017-08-13T11:15:56Z</time>
      </trkpt>
      <trkpt lat="42.50785" lon="-0.12877">
        <ele>803.5</ele>
        <time>2017-08-13T11:15:57Z</time>
      </trkpt>
      <trkpt lat="42.50782" lon="-0.12874">
        <ele>802.6</ele>
        <time>2017-08-13T11:15:58Z</time>
      </trkpt>
      <trkpt lat="42.50779" lon="-0.12871">
        <ele>803.1</ele>
        <time>2017-08-13T11:15:59Z</time>
      </trkpt>
      <trkpt lat="42.50775" lon="-0.12868">
        <ele>802.1</ele>
        <time>2017-08-13T11:16:00Z</time>
      </trkpt>
      <trkpt lat="42.50771" lon="-0.12866">
        <ele>802.8</ele>
        <time>2017-08-13T11:16:01Z</time>
      </trkpt>
      <trkpt lat="42.50768" lon="-0.12865">
        <ele>801.8</ele>
        <time>2017-08-13T11:16:02Z</time>
      </trkpt>
      <trkpt lat="42.50763" lon="-0.12864">
        <ele>803.6</ele>
        <time>2017-08-13T11:16:04Z</time>
      </trkpt>
      <trkpt lat="42.50759" lon="-0.1286">
        <ele>802.4</ele>
        <time>2017-08-13T11:16:06Z</time>
      </trkpt>
      <trkpt lat="42.50756" lon="-0.12858">
        <ele>803.3</ele>
        <time>2017-08-13T11:16:07Z</time>
      </trkpt>
      <trkpt lat="42.50753" lon="-0.12856">
        <ele>801.6</ele>
        <time>2017-08-13T11:16:08Z</time>
      </trkpt>
      <trkpt lat="42.5075" lon="-0.12854">
        <ele>802.5</ele>
        <time>2017-08-13T11:16:09Z</time>
      </trkpt>
      <trkpt lat="42.50748" lon="-0.12852">
        <ele>800.3</ele>
        <time>2017-08-13T11:16:10Z</time>
      </trkpt>
      <trkpt lat="42.50743" lon="-0.12851">
        <ele>801.5</ele>
        <time>2017-08-13T11:16:12Z</time>
      </trkpt>
      <trkpt lat="42.50738" lon="-0.12849">
        <ele>804.7</ele>
        <time>2017-08-13T11:16:14Z</time>
      </trkpt>
      <trkpt lat="42.50735" lon="-0.12847">
        <ele>801.3</ele>
        <time>2017-08-13T11:16:15Z</time>
      </trkpt>
      <trkpt lat="42.50733" lon="-0.12843">
        <ele>800.2</ele>
        <time>2017-08-13T11:16:16Z</time>
      </trkpt>
      <trkpt lat="42.50731" lon="-0.12837">
        <ele>799.9</ele>
        <time>2017-08-13T11:16:17Z</time>
      </trkpt>
      <trkpt lat="42.5073" lon="-0.12832">
        <ele>798.2</ele>
        <time>2017-08-13T11:16:18Z</time>
      </trkpt>
      <trkpt lat="42.50728" lon="-0.12828">
        <ele>799.4</ele>
        <time>2017-08-13T11:16:19Z</time>
      </trkpt>
      <trkpt lat="42.50727" lon="-0.12825">
        <ele>798.7</ele>
        <time>2017-08-13T11:16:20Z</time>
      </trkpt>
      <trkpt lat="42.50724" lon="-0.12821">
        <ele>800.5</ele>
        <time>2017-08-13T11:16:22Z</time>
      </trkpt>
      <trkpt lat="42.50722" lon="-0.12817">
        <ele>802.2</ele>
        <time>2017-08-13T11:16:24Z</time>
      </trkpt>
      <trkpt lat="42.5072" lon="-0.12813">
        <ele>801.7</ele>
        <time>2017-08-13T11:16:26Z</time>
      </trkpt>
      <trkpt lat="42.50718" lon="-0.1281">
        <ele>802.9</ele>
        <time>2017-08-13T11:16:28Z</time>
      </trkpt>
      <trkpt lat="42.50714" lon="-0.12806">
        <ele>803.8</ele>
        <time>2017-08-13T11:16:30Z</time>
      </trkpt>
      <trkpt lat="42.50712" lon="-0.12803">
        <ele>805.7</ele>
        <time>2017-08-13T11:16:31Z</time>
      </trkpt>
      <trkpt lat="42.5071" lon="-0.128">
        <ele>804.1</ele>
        <time>2017-08-13T11:16:32Z</time>
      </trkpt>
      <trkpt lat="42.50709" lon="-0.12797">
        <ele>804.1</ele>
        <time>2017-08-13T11:16:33Z</time>
      </trkpt>
      <trkpt lat="42.50707" lon="-0.12793">
        <ele>804.1</ele>
        <time>2017-08-13T11:16:34Z</time>
      </trkpt>
      <trkpt lat="42.50705" lon="-0.1279">
        <ele>804</ele>
        <time>2017-08-13T11:16:35Z</time>
      </trkpt>
      <trkpt lat="42.50703" lon="-0.12787">
        <ele>803.9</ele>
        <time>2017-08-13T11:16:36Z</time>
      </trkpt>
      <trkpt lat="42.507" lon="-0.12784">
        <ele>801.5</ele>
        <time>2017-08-13T11:16:37Z</time>
      </trkpt>
      <trkpt lat="42.50698" lon="-0.12782">
        <ele>803.7</ele>
        <time>2017-08-13T11:16:38Z</time>
      </trkpt>
      <trkpt lat="42.50694" lon="-0.12778">
        <ele>803.1</ele>
        <time>2017-08-13T11:16:40Z</time>
      </trkpt>
      <trkpt lat="42.50691" lon="-0.12776">
        <ele>802</ele>
        <time>2017-08-13T11:16:41Z</time>
      </trkpt>
      <trkpt lat="42.50687" lon="-0.12773">
        <ele>805.4</ele>
        <time>2017-08-13T11:16:42Z</time>
      </trkpt>
      <trkpt lat="42.50683" lon="-0.1277">
        <ele>803.5</ele>
        <time>2017-08-13T11:16:43Z</time>
      </trkpt>
      <trkpt lat="42.50679" lon="-0.12767">
        <ele>801.3</ele>
        <time>2017-08-13T11:16:44Z</time>
      </trkpt>
      <trkpt lat="42.50676" lon="-0.12764">
        <ele>803.1</ele>
        <time>2017-08-13T11:16:45Z</time>
      </trkpt>
      <trkpt lat="42.50673" lon="-0.1276">
        <ele>800.9</ele>
        <time>2017-08-13T11:16:46Z</time>
      </trkpt>
      <trkpt lat="42.5067" lon="-0.12756">
        <ele>799.1</ele>
        <time>2017-08-13T11:16:47Z</time>
      </trkpt>
      <trkpt lat="42.50667" lon="-0.12753">
        <ele>797.7</ele>
        <time>2017-08-13T11:16:48Z</time>
      </trkpt>
      <trkpt lat="42.50664" lon="-0.1275">
        <ele>799.2</ele>
        <time>2017-08-13T11:16:49Z</time>
      </trkpt>
      <trkpt lat="42.50662" lon="-0.12748">
        <ele>797.9</ele>
        <time>2017-08-13T11:16:50Z</time>
      </trkpt>
      <trkpt lat="42.50659" lon="-0.12745">
        <ele>796.6</ele>
        <time>2017-08-13T11:16:51Z</time>
      </trkpt>
      <trkpt lat="42.50656" lon="-0.12742">
        <ele>798.1</ele>
        <time>2017-08-13T11:16:52Z</time>
      </trkpt>
      <trkpt lat="42.50653" lon="-0.12739">
        <ele>795.2</ele>
        <time>2017-08-13T11:16:53Z</time>
      </trkpt>
      <trkpt lat="42.5065" lon="-0.12737">
        <ele>793.9</ele>
        <time>2017-08-13T11:16:54Z</time>
      </trkpt>
      <trkpt lat="42.50648" lon="-0.12735">
        <ele>795.2</ele>
        <time>2017-08-13T11:16:55Z</time>
      </trkpt>
      <trkpt lat="42.50643" lon="-0.12732">
        <ele>794.2</ele>
        <time>2017-08-13T11:16:57Z</time>
      </trkpt>
      <trkpt lat="42.50639" lon="-0.12729">
        <ele>797.1</ele>
        <time>2017-08-13T11:16:59Z</time>
      </trkpt>
      <trkpt lat="42.50636" lon="-0.12726">
        <ele>797</ele>
        <time>2017-08-13T11:17:01Z</time>
      </trkpt>
      <trkpt lat="42.50633" lon="-0.12722">
        <ele>797.9</ele>
        <time>2017-08-13T11:17:03Z</time>
      </trkpt>
      <trkpt lat="42.5063" lon="-0.12718">
        <ele>799.5</ele>
        <time>2017-08-13T11:17:05Z</time>
      </trkpt>
      <trkpt lat="42.50627" lon="-0.12716">
        <ele>801.2</ele>
        <time>2017-08-13T11:17:07Z</time>
      </trkpt>
      <trkpt lat="42.50624" lon="-0.12714">
        <ele>803.5</ele>
        <time>2017-08-13T11:17:09Z</time>
      </trkpt>
      <trkpt lat="42.5062" lon="-0.12712">
        <ele>805.8</ele>
        <time>2017-08-13T11:17:11Z</time>
      </trkpt>
      <trkpt lat="42.50616" lon="-0.12711">
        <ele>807</ele>
        <time>2017-08-13T11:17:13Z</time>
      </trkpt>
      <trkpt lat="42.50612" lon="-0.12711">
        <ele>808.7</ele>
        <time>2017-08-13T11:17:15Z</time>
      </trkpt>
      <trkpt lat="42.5061" lon="-0.1271">
        <ele>810.3</ele>
        <time>2017-08-13T11:17:30Z</time>
      </trkpt>
      <trkpt lat="42.50607" lon="-0.12709">
        <ele>811.7</ele>
        <time>2017-08-13T11:17:47Z</time>
      </trkpt>
      <trkpt lat="42.50603" lon="-0.12708">
        <ele>813.1</ele>
        <time>2017-08-13T11:17:59Z</time>
      </trkpt>
      <trkpt lat="42.506" lon="-0.12707">
        <ele>814.4</ele>
        <time>2017-08-13T11:18:04Z</time>
      </trkpt>
      <trkpt lat="42.50597" lon="-0.12706">
        <ele>814.3</ele>
        <time>2017-08-13T11:18:09Z</time>
      </trkpt>
      <trkpt lat="42.50595" lon="-0.12704">
        <ele>815.4</ele>
        <time>2017-08-13T11:18:14Z</time>
      </trkpt>
      <trkpt lat="42.5059" lon="-0.12701">
        <ele>815</ele>
        <time>2017-08-13T11:18:16Z</time>
      </trkpt>
      <trkpt lat="42.50588" lon="-0.12698">
        <ele>814.4</ele>
        <time>2017-08-13T11:18:17Z</time>
      </trkpt>
      <trkpt lat="42.50585" lon="-0.12695">
        <ele>815.2</ele>
        <time>2017-08-13T11:18:18Z</time>
      </trkpt>
      <trkpt lat="42.50582" lon="-0.12692">
        <ele>814.3</ele>
        <time>2017-08-13T11:18:19Z</time>
      </trkpt>
      <trkpt lat="42.5058" lon="-0.12688">
        <ele>812.9</ele>
        <time>2017-08-13T11:18:20Z</time>
      </trkpt>
      <trkpt lat="42.50577" lon="-0.12685">
        <ele>810.2</ele>
        <time>2017-08-13T11:18:21Z</time>
      </trkpt>
      <trkpt lat="42.50574" lon="-0.12682">
        <ele>811.2</ele>
        <time>2017-08-13T11:18:22Z</time>
      </trkpt>
      <trkpt lat="42.50571" lon="-0.12679">
        <ele>809.3</ele>
        <time>2017-08-13T11:18:23Z</time>
      </trkpt>
      <trkpt lat="42.50568" lon="-0.12677">
        <ele>807.4</ele>
        <time>2017-08-13T11:18:24Z</time>
      </trkpt>
      <trkpt lat="42.50565" lon="-0.12674">
        <ele>808.6</ele>
        <time>2017-08-13T11:18:25Z</time>
      </trkpt>
      <trkpt lat="42.50561" lon="-0.12669">
        <ele>808.4</ele>
        <time>2017-08-13T11:18:26Z</time>
      </trkpt>
      <trkpt lat="42.50557" lon="-0.12665">
        <ele>807.2</ele>
        <time>2017-08-13T11:18:27Z</time>
      </trkpt>
      <trkpt lat="42.50553" lon="-0.12661">
        <ele>806</ele>
        <time>2017-08-13T11:18:28Z</time>
      </trkpt>
      <trkpt lat="42.50549" lon="-0.12657">
        <ele>804.9</ele>
        <time>2017-08-13T11:18:29Z</time>
      </trkpt>
      <trkpt lat="42.50547" lon="-0.12653">
        <ele>803.8</ele>
        <time>2017-08-13T11:18:30Z</time>
      </trkpt>
      <trkpt lat="42.50545" lon="-0.12648">
        <ele>802.9</ele>
        <time>2017-08-13T11:18:31Z</time>
      </trkpt>
      <trkpt lat="42.50544" lon="-0.12644">
        <ele>800</ele>
        <time>2017-08-13T11:18:32Z</time>
      </trkpt>
      <trkpt lat="42.5054" lon="-0.12639">
        <ele>799.5</ele>
        <time>2017-08-13T11:18:34Z</time>
      </trkpt>
      <trkpt lat="42.50535" lon="-0.12637">
        <ele>801.5</ele>
        <time>2017-08-13T11:18:36Z</time>
      </trkpt>
      <trkpt lat="42.50532" lon="-0.12635">
        <ele>803.8</ele>
        <time>2017-08-13T11:18:37Z</time>
      </trkpt>
      <trkpt lat="42.50529" lon="-0.12631">
        <ele>803.6</ele>
        <time>2017-08-13T11:18:38Z</time>
      </trkpt>
      <trkpt lat="42.50526" lon="-0.12626">
        <ele>803.5</ele>
        <time>2017-08-13T11:18:39Z</time>
      </trkpt>
      <trkpt lat="42.50524" lon="-0.1262">
        <ele>798.7</ele>
        <time>2017-08-13T11:18:40Z</time>
      </trkpt>
      <trkpt lat="42.50521" lon="-0.12614">
        <ele>799.1</ele>
        <time>2017-08-13T11:18:41Z</time>
      </trkpt>
      <trkpt lat="42.50519" lon="-0.12608">
        <ele>797.5</ele>
        <time>2017-08-13T11:18:42Z</time>
      </trkpt>
      <trkpt lat="42.50517" lon="-0.12602">
        <ele>795</ele>
        <time>2017-08-13T11:18:43Z</time>
      </trkpt>
      <trkpt lat="42.50516" lon="-0.12596">
        <ele>795.2</ele>
        <time>2017-08-13T11:18:44Z</time>
      </trkpt>
      <trkpt lat="42.50514" lon="-0.1259">
        <ele>790.3</ele>
        <time>2017-08-13T11:18:45Z</time>
      </trkpt>
      <trkpt lat="42.50512" lon="-0.12583">
        <ele>790.6</ele>
        <time>2017-08-13T11:18:46Z</time>
      </trkpt>
      <trkpt lat="42.50509" lon="-0.12577">
        <ele>788.8</ele>
        <time>2017-08-13T11:18:47Z</time>
      </trkpt>
      <trkpt lat="42.50505" lon="-0.12572">
        <ele>788.7</ele>
        <time>2017-08-13T11:18:48Z</time>
      </trkpt>
      <trkpt lat="42.505" lon="-0.12567">
        <ele>790.5</ele>
        <time>2017-08-13T11:18:49Z</time>
      </trkpt>
      <trkpt lat="42.50495" lon="-0.12563">
        <ele>790.3</ele>
        <time>2017-08-13T11:18:50Z</time>
      </trkpt>
      <trkpt lat="42.5049" lon="-0.1256">
        <ele>792.8</ele>
        <time>2017-08-13T11:18:51Z</time>
      </trkpt>
      <trkpt lat="42.50486" lon="-0.12557">
        <ele>793.3</ele>
        <time>2017-08-13T11:18:52Z</time>
      </trkpt>
      <trkpt lat="42.50482" lon="-0.12552">
        <ele>796</ele>
        <time>2017-08-13T11:18:53Z</time>
      </trkpt>
      <trkpt lat="42.50478" lon="-0.12547">
        <ele>796.1</ele>
        <time>2017-08-13T11:18:54Z</time>
      </trkpt>
      <trkpt lat="42.50474" lon="-0.12541">
        <ele>796.1</ele>
        <time>2017-08-13T11:18:55Z</time>
      </trkpt>
      <trkpt lat="42.50471" lon="-0.12535">
        <ele>794.4</ele>
        <time>2017-08-13T11:18:56Z</time>
      </trkpt>
      <trkpt lat="42.50467" lon="-0.1253">
        <ele>794.8</ele>
        <time>2017-08-13T11:18:57Z</time>
      </trkpt>
      <trkpt lat="42.50464" lon="-0.12525">
        <ele>795.6</ele>
        <time>2017-08-13T11:18:58Z</time>
      </trkpt>
      <trkpt lat="42.50461" lon="-0.12522">
        <ele>796.3</ele>
        <time>2017-08-13T11:18:59Z</time>
      </trkpt>
      <trkpt lat="42.50457" lon="-0.12519">
        <ele>798.3</ele>
        <time>2017-08-13T11:19:00Z</time>
      </trkpt>
      <trkpt lat="42.50454" lon="-0.12515">
        <ele>798.9</ele>
        <time>2017-08-13T11:19:01Z</time>
      </trkpt>
      <trkpt lat="42.50452" lon="-0.12511">
        <ele>799.4</ele>
        <time>2017-08-13T11:19:02Z</time>
      </trkpt>
      <trkpt lat="42.5045" lon="-0.12505">
        <ele>798.5</ele>
        <time>2017-08-13T11:19:03Z</time>
      </trkpt>
      <trkpt lat="42.50449" lon="-0.12498">
        <ele>797.4</ele>
        <time>2017-08-13T11:19:04Z</time>
      </trkpt>
      <trkpt lat="42.50448" lon="-0.1249">
        <ele>795.1</ele>
        <time>2017-08-13T11:19:05Z</time>
      </trkpt>
      <trkpt lat="42.50447" lon="-0.12483">
        <ele>792.4</ele>
        <time>2017-08-13T11:19:06Z</time>
      </trkpt>
      <trkpt lat="42.50446" lon="-0.12476">
        <ele>792.7</ele>
        <time>2017-08-13T11:19:07Z</time>
      </trkpt>
      <trkpt lat="42.50446" lon="-0.12469">
        <ele>790.4</ele>
        <time>2017-08-13T11:19:08Z</time>
      </trkpt>
      <trkpt lat="42.50445" lon="-0.12462">
        <ele>787.9</ele>
        <time>2017-08-13T11:19:09Z</time>
      </trkpt>
      <trkpt lat="42.50444" lon="-0.12454">
        <ele>786.5</ele>
        <time>2017-08-13T11:19:10Z</time>
      </trkpt>
      <trkpt lat="42.50443" lon="-0.12447">
        <ele>785.2</ele>
        <time>2017-08-13T11:19:11Z</time>
      </trkpt>
      <trkpt lat="42.5044" lon="-0.12439">
        <ele>784.3</ele>
        <time>2017-08-13T11:19:12Z</time>
      </trkpt>
      <trkpt lat="42.50437" lon="-0.12432">
        <ele>783.4</ele>
        <time>2017-08-13T11:19:13Z</time>
      </trkpt>
      <trkpt lat="42.50433" lon="-0.12424">
        <ele>783.8</ele>
        <time>2017-08-13T11:19:14Z</time>
      </trkpt>
      <trkpt lat="42.5043" lon="-0.12416">
        <ele>783.6</ele>
        <time>2017-08-13T11:19:15Z</time>
      </trkpt>
      <trkpt lat="42.50426" lon="-0.12408">
        <ele>783.6</ele>
        <time>2017-08-13T11:19:16Z</time>
      </trkpt>
      <trkpt lat="42.50424" lon="-0.12399">
        <ele>782.8</ele>
        <time>2017-08-13T11:19:17Z</time>
      </trkpt>
      <trkpt lat="42.50423" lon="-0.12386">
        <ele>779.7</ele>
        <time>2017-08-13T11:19:18Z</time>
      </trkpt>
      <trkpt lat="42.50421" lon="-0.12377">
        <ele>778.8</ele>
        <time>2017-08-13T11:19:19Z</time>
      </trkpt>
      <trkpt lat="42.50419" lon="-0.12368">
        <ele>776.1</ele>
        <time>2017-08-13T11:19:20Z</time>
      </trkpt>
      <trkpt lat="42.50417" lon="-0.12359">
        <ele>775.9</ele>
        <time>2017-08-13T11:19:21Z</time>
      </trkpt>
      <trkpt lat="42.50416" lon="-0.12348">
        <ele>775</ele>
        <time>2017-08-13T11:19:22Z</time>
      </trkpt>
      <trkpt lat="42.50415" lon="-0.12339">
        <ele>775.5</ele>
        <time>2017-08-13T11:19:23Z</time>
      </trkpt>
      <trkpt lat="42.50413" lon="-0.12329">
        <ele>775.2</ele>
        <time>2017-08-13T11:19:24Z</time>
      </trkpt>
      <trkpt lat="42.5041" lon="-0.12321">
        <ele>776</ele>
        <time>2017-08-13T11:19:25Z</time>
      </trkpt>
      <trkpt lat="42.50406" lon="-0.12314">
        <ele>777.1</ele>
        <time>2017-08-13T11:19:26Z</time>
      </trkpt>
      <trkpt lat="42.50402" lon="-0.12306">
        <ele>776.8</ele>
        <time>2017-08-13T11:19:27Z</time>
      </trkpt>
      <trkpt lat="42.50399" lon="-0.12298">
        <ele>776.4</ele>
        <time>2017-08-13T11:19:28Z</time>
      </trkpt>
      <trkpt lat="42.50396" lon="-0.12291">
        <ele>776.5</ele>
        <time>2017-08-13T11:19:29Z</time>
      </trkpt>
      <trkpt lat="42.50393" lon="-0.12284">
        <ele>776.2</ele>
        <time>2017-08-13T11:19:30Z</time>
      </trkpt>
      <trkpt lat="42.50389" lon="-0.12279">
        <ele>776.4</ele>
        <time>2017-08-13T11:19:31Z</time>
      </trkpt>
      <trkpt lat="42.50385" lon="-0.12274">
        <ele>776.5</ele>
        <time>2017-08-13T11:19:32Z</time>
      </trkpt>
      <trkpt lat="42.50381" lon="-0.12268">
        <ele>776.6</ele>
        <time>2017-08-13T11:19:33Z</time>
      </trkpt>
      <trkpt lat="42.50377" lon="-0.12262">
        <ele>777.2</ele>
        <time>2017-08-13T11:19:34Z</time>
      </trkpt>
      <trkpt lat="42.50374" lon="-0.12257">
        <ele>776.8</ele>
        <time>2017-08-13T11:19:35Z</time>
      </trkpt>
      <trkpt lat="42.50371" lon="-0.12252">
        <ele>776.9</ele>
        <time>2017-08-13T11:19:36Z</time>
      </trkpt>
      <trkpt lat="42.50369" lon="-0.12246">
        <ele>776.3</ele>
        <time>2017-08-13T11:19:37Z</time>
      </trkpt>
      <trkpt lat="42.50367" lon="-0.12241">
        <ele>776.1</ele>
        <time>2017-08-13T11:19:38Z</time>
      </trkpt>
      <trkpt lat="42.50363" lon="-0.12237">
        <ele>775.6</ele>
        <time>2017-08-13T11:19:39Z</time>
      </trkpt>
      <trkpt lat="42.50361" lon="-0.12233">
        <ele>775</ele>
        <time>2017-08-13T11:19:40Z</time>
      </trkpt>
      <trkpt lat="42.50359" lon="-0.12229">
        <ele>773.9</ele>
        <time>2017-08-13T11:19:41Z</time>
      </trkpt>
      <trkpt lat="42.50357" lon="-0.12226">
        <ele>773.2</ele>
        <time>2017-08-13T11:19:42Z</time>
      </trkpt>
      <trkpt lat="42.50354" lon="-0.12222">
        <ele>772.7</ele>
        <time>2017-08-13T11:19:43Z</time>
      </trkpt>
      <trkpt lat="42.5035" lon="-0.12219">
        <ele>773.4</ele>
        <time>2017-08-13T11:19:44Z</time>
      </trkpt>
      <trkpt lat="42.50348" lon="-0.12216">
        <ele>773.2</ele>
        <time>2017-08-13T11:19:45Z</time>
      </trkpt>
      <trkpt lat="42.50344" lon="-0.12214">
        <ele>773.1</ele>
        <time>2017-08-13T11:19:47Z</time>
      </trkpt>
      <trkpt lat="42.5034" lon="-0.1221">
        <ele>774.1</ele>
        <time>2017-08-13T11:19:49Z</time>
      </trkpt>
      <trkpt lat="42.50337" lon="-0.12207">
        <ele>774.2</ele>
        <time>2017-08-13T11:19:50Z</time>
      </trkpt>
      <trkpt lat="42.50334" lon="-0.12204">
        <ele>774.5</ele>
        <time>2017-08-13T11:19:51Z</time>
      </trkpt>
      <trkpt lat="42.50331" lon="-0.122">
        <ele>774.9</ele>
        <time>2017-08-13T11:19:52Z</time>
      </trkpt>
      <trkpt lat="42.50328" lon="-0.12196">
        <ele>775.3</ele>
        <time>2017-08-13T11:19:53Z</time>
      </trkpt>
      <trkpt lat="42.50325" lon="-0.1219">
        <ele>775.8</ele>
        <time>2017-08-13T11:19:54Z</time>
      </trkpt>
      <trkpt lat="42.50322" lon="-0.12186">
        <ele>776.2</ele>
        <time>2017-08-13T11:19:55Z</time>
      </trkpt>
      <trkpt lat="42.50318" lon="-0.12182">
        <ele>776.5</ele>
        <time>2017-08-13T11:19:56Z</time>
      </trkpt>
      <trkpt lat="42.50315" lon="-0.12177">
        <ele>776.8</ele>
        <time>2017-08-13T11:19:57Z</time>
      </trkpt>
      <trkpt lat="42.50311" lon="-0.12172">
        <ele>777</ele>
        <time>2017-08-13T11:19:58Z</time>
      </trkpt>
      <trkpt lat="42.50308" lon="-0.12168">
        <ele>777.9</ele>
        <time>2017-08-13T11:19:59Z</time>
      </trkpt>
      <trkpt lat="42.50304" lon="-0.12163">
        <ele>777.7</ele>
        <time>2017-08-13T11:20:00Z</time>
      </trkpt>
      <trkpt lat="42.50301" lon="-0.12159">
        <ele>777.3</ele>
        <time>2017-08-13T11:20:01Z</time>
      </trkpt>
      <trkpt lat="42.50298" lon="-0.12154">
        <ele>776.6</ele>
        <time>2017-08-13T11:20:02Z</time>
      </trkpt>
      <trkpt lat="42.50295" lon="-0.12151">
        <ele>775.8</ele>
        <time>2017-08-13T11:20:03Z</time>
      </trkpt>
      <trkpt lat="42.50291" lon="-0.12148">
        <ele>775</ele>
        <time>2017-08-13T11:20:04Z</time>
      </trkpt>
      <trkpt lat="42.50289" lon="-0.12144">
        <ele>773.5</ele>
        <time>2017-08-13T11:20:05Z</time>
      </trkpt>
      <trkpt lat="42.50287" lon="-0.12141">
        <ele>774.3</ele>
        <time>2017-08-13T11:20:06Z</time>
      </trkpt>
      <trkpt lat="42.50284" lon="-0.12137">
        <ele>773.7</ele>
        <time>2017-08-13T11:20:07Z</time>
      </trkpt>
      <trkpt lat="42.5028" lon="-0.12134">
        <ele>773.1</ele>
        <time>2017-08-13T11:20:08Z</time>
      </trkpt>
      <trkpt lat="42.50277" lon="-0.12129">
        <ele>772.5</ele>
        <time>2017-08-13T11:20:09Z</time>
      </trkpt>
      <trkpt lat="42.50274" lon="-0.12124">
        <ele>771.9</ele>
        <time>2017-08-13T11:20:10Z</time>
      </trkpt>
      <trkpt lat="42.50271" lon="-0.1212">
        <ele>771.5</ele>
        <time>2017-08-13T11:20:11Z</time>
      </trkpt>
      <trkpt lat="42.50267" lon="-0.12115">
        <ele>771.4</ele>
        <time>2017-08-13T11:20:12Z</time>
      </trkpt>
      <trkpt lat="42.50263" lon="-0.1211">
        <ele>772</ele>
        <time>2017-08-13T11:20:13Z</time>
      </trkpt>
      <trkpt lat="42.5026" lon="-0.12105">
        <ele>772.5</ele>
        <time>2017-08-13T11:20:14Z</time>
      </trkpt>
      <trkpt lat="42.50256" lon="-0.121">
        <ele>772.8</ele>
        <time>2017-08-13T11:20:15Z</time>
      </trkpt>
      <trkpt lat="42.50252" lon="-0.12096">
        <ele>772.9</ele>
        <time>2017-08-13T11:20:16Z</time>
      </trkpt>
      <trkpt lat="42.50249" lon="-0.12091">
        <ele>772.8</ele>
        <time>2017-08-13T11:20:17Z</time>
      </trkpt>
      <trkpt lat="42.50246" lon="-0.12086">
        <ele>772.5</ele>
        <time>2017-08-13T11:20:18Z</time>
      </trkpt>
      <trkpt lat="42.50242" lon="-0.12081">
        <ele>772.2</ele>
        <time>2017-08-13T11:20:19Z</time>
      </trkpt>
      <trkpt lat="42.50238" lon="-0.12078">
        <ele>772.1</ele>
        <time>2017-08-13T11:20:20Z</time>
      </trkpt>
      <trkpt lat="42.50233" lon="-0.12076">
        <ele>771.6</ele>
        <time>2017-08-13T11:20:21Z</time>
      </trkpt>
      <trkpt lat="42.5023" lon="-0.12073">
        <ele>771.8</ele>
        <time>2017-08-13T11:20:22Z</time>
      </trkpt>
      <trkpt lat="42.50227" lon="-0.12069">
        <ele>771.3</ele>
        <time>2017-08-13T11:20:23Z</time>
      </trkpt>
      <trkpt lat="42.50223" lon="-0.12066">
        <ele>770.7</ele>
        <time>2017-08-13T11:20:24Z</time>
      </trkpt>
      <trkpt lat="42.5022" lon="-0.12063">
        <ele>770.2</ele>
        <time>2017-08-13T11:20:25Z</time>
      </trkpt>
      <trkpt lat="42.50217" lon="-0.12061">
        <ele>770.4</ele>
        <time>2017-08-13T11:20:26Z</time>
      </trkpt>
      <trkpt lat="42.50215" lon="-0.12058">
        <ele>769.8</ele>
        <time>2017-08-13T11:20:27Z</time>
      </trkpt>
      <trkpt lat="42.50211" lon="-0.12055">
        <ele>769.2</ele>
        <time>2017-08-13T11:20:29Z</time>
      </trkpt>
      <trkpt lat="42.50208" lon="-0.12053">
        <ele>769.5</ele>
        <time>2017-08-13T11:20:30Z</time>
      </trkpt>
      <trkpt lat="42.50205" lon="-0.12051">
        <ele>769.8</ele>
        <time>2017-08-13T11:20:31Z</time>
      </trkpt>
      <trkpt lat="42.50202" lon="-0.12049">
        <ele>769.2</ele>
        <time>2017-08-13T11:20:32Z</time>
      </trkpt>
      <trkpt lat="42.50199" lon="-0.12047">
        <ele>769.7</ele>
        <time>2017-08-13T11:20:33Z</time>
      </trkpt>
      <trkpt lat="42.50195" lon="-0.12045">
        <ele>769.1</ele>
        <time>2017-08-13T11:20:34Z</time>
      </trkpt>
      <trkpt lat="42.50192" lon="-0.12043">
        <ele>769.6</ele>
        <time>2017-08-13T11:20:35Z</time>
      </trkpt>
      <trkpt lat="42.50189" lon="-0.1204">
        <ele>769.1</ele>
        <time>2017-08-13T11:20:36Z</time>
      </trkpt>
      <trkpt lat="42.50186" lon="-0.12038">
        <ele>768.5</ele>
        <time>2017-08-13T11:20:37Z</time>
      </trkpt>
      <trkpt lat="42.50182" lon="-0.12032">
        <ele>767.9</ele>
        <time>2017-08-13T11:20:38Z</time>
      </trkpt>
      <trkpt lat="42.5018" lon="-0.12027">
        <ele>767.3</ele>
        <time>2017-08-13T11:20:39Z</time>
      </trkpt>
      <trkpt lat="42.50176" lon="-0.12023">
        <ele>766.7</ele>
        <time>2017-08-13T11:20:40Z</time>
      </trkpt>
      <trkpt lat="42.50173" lon="-0.12019">
        <ele>766</ele>
        <time>2017-08-13T11:20:41Z</time>
      </trkpt>
      <trkpt lat="42.50169" lon="-0.12015">
        <ele>765.5</ele>
        <time>2017-08-13T11:20:42Z</time>
      </trkpt>
      <trkpt lat="42.50165" lon="-0.12011">
        <ele>765.5</ele>
        <time>2017-08-13T11:20:43Z</time>
      </trkpt>
      <trkpt lat="42.5016" lon="-0.12007">
        <ele>765</ele>
        <time>2017-08-13T11:20:44Z</time>
      </trkpt>
      <trkpt lat="42.50156" lon="-0.12003">
        <ele>764.5</ele>
        <time>2017-08-13T11:20:45Z</time>
      </trkpt>
      <trkpt lat="42.50152" lon="-0.11999">
        <ele>764.4</ele>
        <time>2017-08-13T11:20:46Z</time>
      </trkpt>
      <trkpt lat="42.50148" lon="-0.11995">
        <ele>764.8</ele>
        <time>2017-08-13T11:20:47Z</time>
      </trkpt>
      <trkpt lat="42.50144" lon="-0.11991">
        <ele>764.4</ele>
        <time>2017-08-13T11:20:48Z</time>
      </trkpt>
      <trkpt lat="42.50142" lon="-0.11985">
        <ele>763.5</ele>
        <time>2017-08-13T11:20:49Z</time>
      </trkpt>
      <trkpt lat="42.50139" lon="-0.1198">
        <ele>763.3</ele>
        <time>2017-08-13T11:20:50Z</time>
      </trkpt>
      <trkpt lat="42.50137" lon="-0.11975">
        <ele>763.2</ele>
        <time>2017-08-13T11:20:51Z</time>
      </trkpt>
      <trkpt lat="42.50135" lon="-0.11969">
        <ele>762.4</ele>
        <time>2017-08-13T11:20:52Z</time>
      </trkpt>
      <trkpt lat="42.50132" lon="-0.11965">
        <ele>762.2</ele>
        <time>2017-08-13T11:20:53Z</time>
      </trkpt>
      <trkpt lat="42.50129" lon="-0.1196">
        <ele>761.9</ele>
        <time>2017-08-13T11:20:54Z</time>
      </trkpt>
      <trkpt lat="42.50124" lon="-0.1196">
        <ele>762.2</ele>
        <time>2017-08-13T11:20:55Z</time>
      </trkpt>
      <trkpt lat="42.50119" lon="-0.11961">
        <ele>762.3</ele>
        <time>2017-08-13T11:20:57Z</time>
      </trkpt>
      <trkpt lat="42.50115" lon="-0.11959">
        <ele>762.4</ele>
        <time>2017-08-13T11:20:59Z</time>
      </trkpt>
      <trkpt lat="42.50111" lon="-0.11957">
        <ele>762.5</ele>
        <time>2017-08-13T11:21:01Z</time>
      </trkpt>
      <trkpt lat="42.50105" lon="-0.11955">
        <ele>762.3</ele>
        <time>2017-08-13T11:21:03Z</time>
      </trkpt>
      <trkpt lat="42.50101" lon="-0.11953">
        <ele>762.4</ele>
        <time>2017-08-13T11:21:05Z</time>
      </trkpt>
      <trkpt lat="42.50099" lon="-0.1195">
        <ele>762</ele>
        <time>2017-08-13T11:21:07Z</time>
      </trkpt>
      <trkpt lat="42.50097" lon="-0.11945">
        <ele>761.8</ele>
        <time>2017-08-13T11:21:09Z</time>
      </trkpt>
      <trkpt lat="42.50095" lon="-0.11942">
        <ele>761.6</ele>
        <time>2017-08-13T11:21:10Z</time>
      </trkpt>
      <trkpt lat="42.50092" lon="-0.11939">
        <ele>761.5</ele>
        <time>2017-08-13T11:21:11Z</time>
      </trkpt>
      <trkpt lat="42.50089" lon="-0.11936">
        <ele>761.7</ele>
        <time>2017-08-13T11:21:12Z</time>
      </trkpt>
      <trkpt lat="42.50086" lon="-0.11934">
        <ele>761.7</ele>
        <time>2017-08-13T11:21:13Z</time>
      </trkpt>
      <trkpt lat="42.50083" lon="-0.11932">
        <ele>761.8</ele>
        <time>2017-08-13T11:21:14Z</time>
      </trkpt>
      <trkpt lat="42.5008" lon="-0.11931">
        <ele>761.8</ele>
        <time>2017-08-13T11:21:15Z</time>
      </trkpt>
      <trkpt lat="42.50075" lon="-0.11928">
        <ele>761.9</ele>
        <time>2017-08-13T11:21:17Z</time>
      </trkpt>
      <trkpt lat="42.50072" lon="-0.11926">
        <ele>761.7</ele>
        <time>2017-08-13T11:21:19Z</time>
      </trkpt>
      <trkpt lat="42.5007" lon="-0.11923">
        <ele>761.7</ele>
        <time>2017-08-13T11:21:31Z</time>
      </trkpt>
      <trkpt lat="42.50065" lon="-0.1192">
        <ele>761.4</ele>
        <time>2017-08-13T11:26:36Z</time>
      </trkpt>
      <trkpt lat="42.50063" lon="-0.11919">
        <ele>761.3</ele>
        <time>2017-08-13T11:26:39Z</time>
      </trkpt>
      <trkpt lat="42.5006" lon="-0.11917">
        <ele>761</ele>
        <time>2017-08-13T11:26:42Z</time>
      </trkpt>
      <trkpt lat="42.50057" lon="-0.11916">
        <ele>760.9</ele>
        <time>2017-08-13T11:26:44Z</time>
      </trkpt>
      <trkpt lat="42.50054" lon="-0.11913">
        <ele>760.6</ele>
        <time>2017-08-13T11:26:46Z</time>
      </trkpt>
      <trkpt lat="42.5005" lon="-0.11909">
        <ele>760.5</ele>
        <time>2017-08-13T11:26:48Z</time>
      </trkpt>
      <trkpt lat="42.50047" lon="-0.11906">
        <ele>760.5</ele>
        <time>2017-08-13T11:26:49Z</time>
      </trkpt>
      <trkpt lat="42.50044" lon="-0.11904">
        <ele>760.5</ele>
        <time>2017-08-13T11:26:50Z</time>
      </trkpt>
      <trkpt lat="42.50041" lon="-0.11902">
        <ele>760.6</ele>
        <time>2017-08-13T11:26:51Z</time>
      </trkpt>
      <trkpt lat="42.50039" lon="-0.11901">
        <ele>760.7</ele>
        <time>2017-08-13T11:26:52Z</time>
      </trkpt>
      <trkpt lat="42.50036" lon="-0.119">
        <ele>760.6</ele>
        <time>2017-08-13T11:26:53Z</time>
      </trkpt>
      <trkpt lat="42.50033" lon="-0.11899">
        <ele>760.7</ele>
        <time>2017-08-13T11:26:54Z</time>
      </trkpt>
      <trkpt lat="42.5003" lon="-0.11898">
        <ele>760.8</ele>
        <time>2017-08-13T11:26:55Z</time>
      </trkpt>
      <trkpt lat="42.50027" lon="-0.11898">
        <ele>761</ele>
        <time>2017-08-13T11:26:56Z</time>
      </trkpt>
      <trkpt lat="42.50023" lon="-0.11898">
        <ele>761.1</ele>
        <time>2017-08-13T11:26:57Z</time>
      </trkpt>
      <trkpt lat="42.5002" lon="-0.11898">
        <ele>761.3</ele>
        <time>2017-08-13T11:26:58Z</time>
      </trkpt>
      <trkpt lat="42.50017" lon="-0.11899">
        <ele>761.8</ele>
        <time>2017-08-13T11:26:59Z</time>
      </trkpt>
      <trkpt lat="42.50013" lon="-0.11901">
        <ele>762.1</ele>
        <time>2017-08-13T11:27:00Z</time>
      </trkpt>
      <trkpt lat="42.50009" lon="-0.11903">
        <ele>762.3</ele>
        <time>2017-08-13T11:27:01Z</time>
      </trkpt>
      <trkpt lat="42.50006" lon="-0.11904">
        <ele>762.4</ele>
        <time>2017-08-13T11:27:02Z</time>
      </trkpt>
      <trkpt lat="42.50002" lon="-0.11906">
        <ele>762.6</ele>
        <time>2017-08-13T11:27:03Z</time>
      </trkpt>
      <trkpt lat="42.49999" lon="-0.11907">
        <ele>762.7</ele>
        <time>2017-08-13T11:27:04Z</time>
      </trkpt>
      <trkpt lat="42.49995" lon="-0.11908">
        <ele>762.8</ele>
        <time>2017-08-13T11:27:05Z</time>
      </trkpt>
      <trkpt lat="42.49992" lon="-0.11909">
        <ele>762.8</ele>
        <time>2017-08-13T11:27:06Z</time>
      </trkpt>
      <trkpt lat="42.49989" lon="-0.1191">
        <ele>762.9</ele>
        <time>2017-08-13T11:27:07Z</time>
      </trkpt>
      <trkpt lat="42.49985" lon="-0.11911">
        <ele>762.9</ele>
        <time>2017-08-13T11:27:08Z</time>
      </trkpt>
      <trkpt lat="42.49982" lon="-0.11912">
        <ele>763</ele>
        <time>2017-08-13T11:27:09Z</time>
      </trkpt>
      <trkpt lat="42.49979" lon="-0.11913">
        <ele>763.1</ele>
        <time>2017-08-13T11:27:10Z</time>
      </trkpt>
      <trkpt lat="42.49976" lon="-0.11914">
        <ele>763.2</ele>
        <time>2017-08-13T11:27:11Z</time>
      </trkpt>
      <trkpt lat="42.49973" lon="-0.11914">
        <ele>763.3</ele>
        <time>2017-08-13T11:27:12Z</time>
      </trkpt>
      <trkpt lat="42.49969" lon="-0.11915">
        <ele>763.6</ele>
        <time>2017-08-13T11:27:13Z</time>
      </trkpt>
      <trkpt lat="42.49966" lon="-0.11915">
        <ele>763.7</ele>
        <time>2017-08-13T11:27:14Z</time>
      </trkpt>
      <trkpt lat="42.49963" lon="-0.11915">
        <ele>763.7</ele>
        <time>2017-08-13T11:27:15Z</time>
      </trkpt>
      <trkpt lat="42.4996" lon="-0.11914">
        <ele>763.8</ele>
        <time>2017-08-13T11:27:16Z</time>
      </trkpt>
      <trkpt lat="42.49958" lon="-0.11913">
        <ele>764</ele>
        <time>2017-08-13T11:27:17Z</time>
      </trkpt>
      <trkpt lat="42.49953" lon="-0.11911">
        <ele>764.3</ele>
        <time>2017-08-13T11:27:19Z</time>
      </trkpt>
      <trkpt lat="42.49948" lon="-0.11909">
        <ele>764.3</ele>
        <time>2017-08-13T11:27:21Z</time>
      </trkpt>
      <trkpt lat="42.49943" lon="-0.11905">
        <ele>764.6</ele>
        <time>2017-08-13T11:27:23Z</time>
      </trkpt>
      <trkpt lat="42.4994" lon="-0.119">
        <ele>764.5</ele>
        <time>2017-08-13T11:27:25Z</time>
      </trkpt>
      <trkpt lat="42.49937" lon="-0.11896">
        <ele>764.3</ele>
        <time>2017-08-13T11:27:27Z</time>
      </trkpt>
      <trkpt lat="42.49934" lon="-0.11893">
        <ele>764.2</ele>
        <time>2017-08-13T11:27:29Z</time>
      </trkpt>
      <trkpt lat="42.49931" lon="-0.11889">
        <ele>764.1</ele>
        <time>2017-08-13T11:27:31Z</time>
      </trkpt>
      <trkpt lat="42.49929" lon="-0.11884">
        <ele>764</ele>
        <time>2017-08-13T11:27:33Z</time>
      </trkpt>
      <trkpt lat="42.49927" lon="-0.11878">
        <ele>763.9</ele>
        <time>2017-08-13T11:27:35Z</time>
      </trkpt>
      <trkpt lat="42.49926" lon="-0.11871">
        <ele>763.7</ele>
        <time>2017-08-13T11:27:37Z</time>
      </trkpt>
      <trkpt lat="42.49925" lon="-0.11868">
        <ele>763.7</ele>
        <time>2017-08-13T11:27:38Z</time>
      </trkpt>
      <trkpt lat="42.49923" lon="-0.11861">
        <ele>763.5</ele>
        <time>2017-08-13T11:27:40Z</time>
      </trkpt>
    </trkseg>
  </trk>
  <trk>
    <name><![CDATA[Boltana 15]]></name>
    <extensions>
      <line xmlns="http://www.topografix.com/GPX/gpx_style/0/2">
        <color>FF00FF</color>
        <width>4</width>
      </line>
    </extensions>
    <trkseg>
      <trkpt lat="42.44336" lon="0.06573">
        <ele>607.3</ele>
        <time>2017-07-31T07:59:05Z</time>
      </trkpt>
      <trkpt lat="42.44338" lon="0.0657">
        <ele>606.9</ele>
        <time>2017-07-31T08:07:23Z</time>
      </trkpt>
      <trkpt lat="42.44338" lon="0.06566">
        <ele>606.6</ele>
        <time>2017-07-31T08:07:39Z</time>
      </trkpt>
      <trkpt lat="42.44341" lon="0.06563">
        <ele>606.2</ele>
        <time>2017-07-31T08:08:35Z</time>
      </trkpt>
      <trkpt lat="42.44344" lon="0.0656">
        <ele>605.8</ele>
        <time>2017-07-31T08:08:37Z</time>
      </trkpt>
      <trkpt lat="42.44347" lon="0.06558">
        <ele>605.5</ele>
        <time>2017-07-31T08:08:39Z</time>
      </trkpt>
      <trkpt lat="42.4435" lon="0.06555">
        <ele>605</ele>
        <time>2017-07-31T08:08:41Z</time>
      </trkpt>
      <trkpt lat="42.44355" lon="0.06552">
        <ele>604.5</ele>
        <time>2017-07-31T08:08:43Z</time>
      </trkpt>
      <trkpt lat="42.4436" lon="0.06549">
        <ele>604</ele>
        <time>2017-07-31T08:08:45Z</time>
      </trkpt>
      <trkpt lat="42.44362" lon="0.06547">
        <ele>603.7</ele>
        <time>2017-07-31T08:08:46Z</time>
      </trkpt>
      <trkpt lat="42.44365" lon="0.06545">
        <ele>603.4</ele>
        <time>2017-07-31T08:08:47Z</time>
      </trkpt>
      <trkpt lat="42.44367" lon="0.06543">
        <ele>603.1</ele>
        <time>2017-07-31T08:08:48Z</time>
      </trkpt>
      <trkpt lat="42.4437" lon="0.06542">
        <ele>602.9</ele>
        <time>2017-07-31T08:08:49Z</time>
      </trkpt>
      <trkpt lat="42.44372" lon="0.06541">
        <ele>602.6</ele>
        <time>2017-07-31T08:08:50Z</time>
      </trkpt>
      <trkpt lat="42.44375" lon="0.06541">
        <ele>602.4</ele>
        <time>2017-07-31T08:08:51Z</time>
      </trkpt>
      <trkpt lat="42.4438" lon="0.0654">
        <ele>602</ele>
        <time>2017-07-31T08:08:53Z</time>
      </trkpt>
      <trkpt lat="42.44384" lon="0.0654">
        <ele>602</ele>
        <time>2017-07-31T08:08:55Z</time>
      </trkpt>
      <trkpt lat="42.44386" lon="0.06538">
        <ele>602.3</ele>
        <time>2017-07-31T08:09:41Z</time>
      </trkpt>
      <trkpt lat="42.44389" lon="0.06532">
        <ele>602.7</ele>
        <time>2017-07-31T08:09:43Z</time>
      </trkpt>
      <trkpt lat="42.44391" lon="0.06529">
        <ele>602.8</ele>
        <time>2017-07-31T08:09:44Z</time>
      </trkpt>
      <trkpt lat="42.44393" lon="0.06525">
        <ele>603</ele>
        <time>2017-07-31T08:09:45Z</time>
      </trkpt>
      <trkpt lat="42.44396" lon="0.06522">
        <ele>603.1</ele>
        <time>2017-07-31T08:09:46Z</time>
      </trkpt>
      <trkpt lat="42.44398" lon="0.06518">
        <ele>603.2</ele>
        <time>2017-07-31T08:09:47Z</time>
      </trkpt>
      <trkpt lat="42.44401" lon="0.06514">
        <ele>603.3</ele>
        <time>2017-07-31T08:09:48Z</time>
      </trkpt>
      <trkpt lat="42.44404" lon="0.06509">
        <ele>603.3</ele>
        <time>2017-07-31T08:09:49Z</time>
      </trkpt>
      <trkpt lat="42.44406" lon="0.06505">
        <ele>603.2</ele>
        <time>2017-07-31T08:09:50Z</time>
      </trkpt>
      <trkpt lat="42.44409" lon="0.06501">
        <ele>603</ele>
        <time>2017-07-31T08:09:51Z</time>
      </trkpt>
      <trkpt lat="42.44411" lon="0.06497">
        <ele>602.8</ele>
        <time>2017-07-31T08:09:52Z</time>
      </trkpt>
      <trkpt lat="42.44414" lon="0.06492">
        <ele>602.6</ele>
        <time>2017-07-31T08:09:53Z</time>
      </trkpt>
      <trkpt lat="42.44416" lon="0.06488">
        <ele>602.6</ele>
        <time>2017-07-31T08:09:54Z</time>
      </trkpt>
      <trkpt lat="42.44418" lon="0.06483">
        <ele>602.7</ele>
        <time>2017-07-31T08:09:55Z</time>
      </trkpt>
      <trkpt lat="42.4442" lon="0.06479">
        <ele>602.8</ele>
        <time>2017-07-31T08:09:56Z</time>
      </trkpt>
      <trkpt lat="42.44422" lon="0.06474">
        <ele>603</ele>
        <time>2017-07-31T08:09:57Z</time>
      </trkpt>
      <trkpt lat="42.44424" lon="0.0647">
        <ele>603.3</ele>
        <time>2017-07-31T08:09:58Z</time>
      </trkpt>
      <trkpt lat="42.44426" lon="0.06465">
        <ele>603.6</ele>
        <time>2017-07-31T08:09:59Z</time>
      </trkpt>
      <trkpt lat="42.44428" lon="0.0646">
        <ele>604.1</ele>
        <time>2017-07-31T08:10:00Z</time>
      </trkpt>
      <trkpt lat="42.4443" lon="0.06456">
        <ele>604.5</ele>
        <time>2017-07-31T08:10:01Z</time>
      </trkpt>
      <trkpt lat="42.44433" lon="0.06451">
        <ele>605</ele>
        <time>2017-07-31T08:10:02Z</time>
      </trkpt>
      <trkpt lat="42.44435" lon="0.06447">
        <ele>605.4</ele>
        <time>2017-07-31T08:10:03Z</time>
      </trkpt>
      <trkpt lat="42.44437" lon="0.06443">
        <ele>605.7</ele>
        <time>2017-07-31T08:10:04Z</time>
      </trkpt>
      <trkpt lat="42.44439" lon="0.06439">
        <ele>606.1</ele>
        <time>2017-07-31T08:10:05Z</time>
      </trkpt>
      <trkpt lat="42.4444" lon="0.06434">
        <ele>606.5</ele>
        <time>2017-07-31T08:10:06Z</time>
      </trkpt>
      <trkpt lat="42.44442" lon="0.0643">
        <ele>606.9</ele>
        <time>2017-07-31T08:10:07Z</time>
      </trkpt>
      <trkpt lat="42.44444" lon="0.06425">
        <ele>607.4</ele>
        <time>2017-07-31T08:10:08Z</time>
      </trkpt>
      <trkpt lat="42.44446" lon="0.0642">
        <ele>607.8</ele>
        <time>2017-07-31T08:10:09Z</time>
      </trkpt>
      <trkpt lat="42.44448" lon="0.06416">
        <ele>608</ele>
        <time>2017-07-31T08:10:10Z</time>
      </trkpt>
      <trkpt lat="42.44449" lon="0.06412">
        <ele>608.2</ele>
        <time>2017-07-31T08:10:11Z</time>
      </trkpt>
      <trkpt lat="42.44451" lon="0.06407">
        <ele>608.5</ele>
        <time>2017-07-31T08:10:13Z</time>
      </trkpt>
      <trkpt lat="42.44454" lon="0.064">
        <ele>609</ele>
        <time>2017-07-31T08:10:15Z</time>
      </trkpt>
      <trkpt lat="42.44455" lon="0.06395">
        <ele>609.2</ele>
        <time>2017-07-31T08:10:16Z</time>
      </trkpt>
      <trkpt lat="42.44456" lon="0.06391">
        <ele>609.4</ele>
        <time>2017-07-31T08:10:17Z</time>
      </trkpt>
      <trkpt lat="42.44457" lon="0.06386">
        <ele>609.8</ele>
        <time>2017-07-31T08:10:18Z</time>
      </trkpt>
      <trkpt lat="42.44458" lon="0.06382">
        <ele>610.2</ele>
        <time>2017-07-31T08:10:19Z</time>
      </trkpt>
      <trkpt lat="42.44459" lon="0.06378">
        <ele>610.6</ele>
        <time>2017-07-31T08:10:20Z</time>
      </trkpt>
      <trkpt lat="42.4446" lon="0.06374">
        <ele>611</ele>
        <time>2017-07-31T08:10:21Z</time>
      </trkpt>
      <trkpt lat="42.44461" lon="0.06369">
        <ele>611.4</ele>
        <time>2017-07-31T08:10:22Z</time>
      </trkpt>
      <trkpt lat="42.44462" lon="0.06365">
        <ele>611.7</ele>
        <time>2017-07-31T08:10:23Z</time>
      </trkpt>
      <trkpt lat="42.44463" lon="0.0636">
        <ele>612</ele>
        <time>2017-07-31T08:10:24Z</time>
      </trkpt>
      <trkpt lat="42.44465" lon="0.06355">
        <ele>612.4</ele>
        <time>2017-07-31T08:10:25Z</time>
      </trkpt>
      <trkpt lat="42.44466" lon="0.0635">
        <ele>613</ele>
        <time>2017-07-31T08:10:26Z</time>
      </trkpt>
      <trkpt lat="42.44468" lon="0.06345">
        <ele>613.5</ele>
        <time>2017-07-31T08:10:27Z</time>
      </trkpt>
      <trkpt lat="42.44469" lon="0.06341">
        <ele>613.8</ele>
        <time>2017-07-31T08:10:28Z</time>
      </trkpt>
      <trkpt lat="42.44471" lon="0.06336">
        <ele>614.1</ele>
        <time>2017-07-31T08:10:29Z</time>
      </trkpt>
      <trkpt lat="42.44473" lon="0.06331">
        <ele>614.4</ele>
        <time>2017-07-31T08:10:30Z</time>
      </trkpt>
      <trkpt lat="42.44474" lon="0.06327">
        <ele>614.7</ele>
        <time>2017-07-31T08:10:31Z</time>
      </trkpt>
      <trkpt lat="42.44476" lon="0.06322">
        <ele>614.8</ele>
        <time>2017-07-31T08:10:32Z</time>
      </trkpt>
      <trkpt lat="42.44477" lon="0.06317">
        <ele>614.7</ele>
        <time>2017-07-31T08:10:33Z</time>
      </trkpt>
      <trkpt lat="42.44478" lon="0.06312">
        <ele>614.6</ele>
        <time>2017-07-31T08:10:34Z</time>
      </trkpt>
      <trkpt lat="42.44479" lon="0.06308">
        <ele>614.4</ele>
        <time>2017-07-31T08:10:35Z</time>
      </trkpt>
      <trkpt lat="42.4448" lon="0.06303">
        <ele>614.2</ele>
        <time>2017-07-31T08:10:36Z</time>
      </trkpt>
      <trkpt lat="42.44482" lon="0.06298">
        <ele>614.6</ele>
        <time>2017-07-31T08:10:37Z</time>
      </trkpt>
      <trkpt lat="42.44483" lon="0.06293">
        <ele>614.9</ele>
        <time>2017-07-31T08:10:38Z</time>
      </trkpt>
      <trkpt lat="42.44485" lon="0.06289">
        <ele>615.1</ele>
        <time>2017-07-31T08:10:39Z</time>
      </trkpt>
      <trkpt lat="42.44486" lon="0.06286">
        <ele>615.2</ele>
        <time>2017-07-31T08:10:40Z</time>
      </trkpt>
      <trkpt lat="42.44487" lon="0.06282">
        <ele>615.3</ele>
        <time>2017-07-31T08:10:41Z</time>
      </trkpt>
      <trkpt lat="42.44488" lon="0.06278">
        <ele>615.8</ele>
        <time>2017-07-31T08:10:42Z</time>
      </trkpt>
      <trkpt lat="42.44489" lon="0.06274">
        <ele>616.4</ele>
        <time>2017-07-31T08:10:43Z</time>
      </trkpt>
      <trkpt lat="42.4449" lon="0.0627">
        <ele>617</ele>
        <time>2017-07-31T08:10:44Z</time>
      </trkpt>
      <trkpt lat="42.44491" lon="0.06266">
        <ele>618.1</ele>
        <time>2017-07-31T08:10:45Z</time>
      </trkpt>
      <trkpt lat="42.44492" lon="0.06262">
        <ele>619.1</ele>
        <time>2017-07-31T08:10:46Z</time>
      </trkpt>
      <trkpt lat="42.44493" lon="0.06256">
        <ele>620.5</ele>
        <time>2017-07-31T08:10:48Z</time>
      </trkpt>
      <trkpt lat="42.44494" lon="0.06252">
        <ele>621</ele>
        <time>2017-07-31T08:10:49Z</time>
      </trkpt>
      <trkpt lat="42.44496" lon="0.06249">
        <ele>621.5</ele>
        <time>2017-07-31T08:10:50Z</time>
      </trkpt>
      <trkpt lat="42.44498" lon="0.06242">
        <ele>623.9</ele>
        <time>2017-07-31T08:10:52Z</time>
      </trkpt>
      <trkpt lat="42.44499" lon="0.06238">
        <ele>625.5</ele>
        <time>2017-07-31T08:10:53Z</time>
      </trkpt>
      <trkpt lat="42.44501" lon="0.06234">
        <ele>626.9</ele>
        <time>2017-07-31T08:10:54Z</time>
      </trkpt>
      <trkpt lat="42.44504" lon="0.06229">
        <ele>628.4</ele>
        <time>2017-07-31T08:10:55Z</time>
      </trkpt>
      <trkpt lat="42.44507" lon="0.06222">
        <ele>631.1</ele>
        <time>2017-07-31T08:10:56Z</time>
      </trkpt>
      <trkpt lat="42.44509" lon="0.06216">
        <ele>633.6</ele>
        <time>2017-07-31T08:10:57Z</time>
      </trkpt>
      <trkpt lat="42.44509" lon="0.0621">
        <ele>635</ele>
        <time>2017-07-31T08:10:58Z</time>
      </trkpt>
      <trkpt lat="42.4451" lon="0.06206">
        <ele>635.8</ele>
        <time>2017-07-31T08:10:59Z</time>
      </trkpt>
      <trkpt lat="42.44511" lon="0.06201">
        <ele>636.3</ele>
        <time>2017-07-31T08:11:01Z</time>
      </trkpt>
      <trkpt lat="42.44512" lon="0.06197">
        <ele>636.6</ele>
        <time>2017-07-31T08:11:03Z</time>
      </trkpt>
      <trkpt lat="42.44513" lon="0.06193">
        <ele>636.9</ele>
        <time>2017-07-31T08:11:09Z</time>
      </trkpt>
      <trkpt lat="42.44514" lon="0.0619">
        <ele>637.6</ele>
        <time>2017-07-31T08:11:11Z</time>
      </trkpt>
      <trkpt lat="42.44515" lon="0.06183">
        <ele>638.5</ele>
        <time>2017-07-31T08:11:13Z</time>
      </trkpt>
      <trkpt lat="42.44515" lon="0.06178">
        <ele>638.1</ele>
        <time>2017-07-31T08:11:15Z</time>
      </trkpt>
      <trkpt lat="42.44515" lon="0.06174">
        <ele>638.4</ele>
        <time>2017-07-31T08:11:17Z</time>
      </trkpt>
      <trkpt lat="42.44516" lon="0.06169">
        <ele>639.6</ele>
        <time>2017-07-31T08:11:20Z</time>
      </trkpt>
      <trkpt lat="42.44519" lon="0.06165">
        <ele>639.2</ele>
        <time>2017-07-31T08:11:22Z</time>
      </trkpt>
      <trkpt lat="42.4452" lon="0.06161">
        <ele>637.9</ele>
        <time>2017-07-31T08:11:28Z</time>
      </trkpt>
      <trkpt lat="42.44521" lon="0.06157">
        <ele>636.9</ele>
        <time>2017-07-31T08:11:33Z</time>
      </trkpt>
      <trkpt lat="42.44522" lon="0.06153">
        <ele>636.5</ele>
        <time>2017-07-31T08:11:36Z</time>
      </trkpt>
      <trkpt lat="42.44522" lon="0.06149">
        <ele>636.1</ele>
        <time>2017-07-31T08:11:40Z</time>
      </trkpt>
      <trkpt lat="42.44524" lon="0.06145">
        <ele>634.5</ele>
        <time>2017-07-31T08:11:46Z</time>
      </trkpt>
      <trkpt lat="42.44524" lon="0.0614">
        <ele>632.9</ele>
        <time>2017-07-31T08:11:51Z</time>
      </trkpt>
      <trkpt lat="42.44526" lon="0.06137">
        <ele>631.4</ele>
        <time>2017-07-31T08:11:55Z</time>
      </trkpt>
      <trkpt lat="42.44528" lon="0.06134">
        <ele>629.8</ele>
        <time>2017-07-31T08:12:00Z</time>
      </trkpt>
      <trkpt lat="42.44529" lon="0.0613">
        <ele>628.3</ele>
        <time>2017-07-31T08:12:08Z</time>
      </trkpt>
      <trkpt lat="42.4453" lon="0.06127">
        <ele>628.5</ele>
        <time>2017-07-31T08:12:14Z</time>
      </trkpt>
      <trkpt lat="42.4453" lon="0.06123">
        <ele>628.6</ele>
        <time>2017-07-31T08:12:19Z</time>
      </trkpt>
      <trkpt lat="42.44531" lon="0.06119">
        <ele>628.7</ele>
        <time>2017-07-31T08:12:22Z</time>
      </trkpt>
      <trkpt lat="42.44532" lon="0.06115">
        <ele>628.8</ele>
        <time>2017-07-31T08:12:30Z</time>
      </trkpt>
      <trkpt lat="42.44532" lon="0.06111">
        <ele>628.5</ele>
        <time>2017-07-31T08:12:35Z</time>
      </trkpt>
      <trkpt lat="42.44532" lon="0.06106">
        <ele>627.7</ele>
        <time>2017-07-31T08:12:39Z</time>
      </trkpt>
      <trkpt lat="42.44532" lon="0.06101">
        <ele>627.9</ele>
        <time>2017-07-31T08:12:43Z</time>
      </trkpt>
      <trkpt lat="42.44534" lon="0.06097">
        <ele>628.8</ele>
        <time>2017-07-31T08:12:45Z</time>
      </trkpt>
      <trkpt lat="42.44535" lon="0.06093">
        <ele>629.7</ele>
        <time>2017-07-31T08:12:49Z</time>
      </trkpt>
      <trkpt lat="42.44536" lon="0.06089">
        <ele>630.4</ele>
        <time>2017-07-31T08:12:53Z</time>
      </trkpt>
      <trkpt lat="42.44536" lon="0.06086">
        <ele>631</ele>
        <time>2017-07-31T08:12:56Z</time>
      </trkpt>
      <trkpt lat="42.44537" lon="0.06082">
        <ele>631.4</ele>
        <time>2017-07-31T08:12:59Z</time>
      </trkpt>
      <trkpt lat="42.44538" lon="0.06077">
        <ele>631.5</ele>
        <time>2017-07-31T08:13:02Z</time>
      </trkpt>
      <trkpt lat="42.44539" lon="0.06073">
        <ele>631.4</ele>
        <time>2017-07-31T08:13:05Z</time>
      </trkpt>
      <trkpt lat="42.44538" lon="0.0607">
        <ele>631</ele>
        <time>2017-07-31T08:13:09Z</time>
      </trkpt>
      <trkpt lat="42.44539" lon="0.06066">
        <ele>630.7</ele>
        <time>2017-07-31T08:13:13Z</time>
      </trkpt>
      <trkpt lat="42.4454" lon="0.06062">
        <ele>630.2</ele>
        <time>2017-07-31T08:13:18Z</time>
      </trkpt>
      <trkpt lat="42.44541" lon="0.06058">
        <ele>629.9</ele>
        <time>2017-07-31T08:13:23Z</time>
      </trkpt>
      <trkpt lat="42.44541" lon="0.06055">
        <ele>629.5</ele>
        <time>2017-07-31T08:13:29Z</time>
      </trkpt>
      <trkpt lat="42.44542" lon="0.06047">
        <ele>628.9</ele>
        <time>2017-07-31T08:14:00Z</time>
      </trkpt>
      <trkpt lat="42.44543" lon="0.06043">
        <ele>628.7</ele>
        <time>2017-07-31T08:14:07Z</time>
      </trkpt>
      <trkpt lat="42.44544" lon="0.0604">
        <ele>628.6</ele>
        <time>2017-07-31T08:14:13Z</time>
      </trkpt>
      <trkpt lat="42.44545" lon="0.06036">
        <ele>629</ele>
        <time>2017-07-31T08:14:22Z</time>
      </trkpt>
      <trkpt lat="42.44547" lon="0.06032">
        <ele>629.4</ele>
        <time>2017-07-31T08:14:27Z</time>
      </trkpt>
      <trkpt lat="42.44548" lon="0.06027">
        <ele>629.6</ele>
        <time>2017-07-31T08:14:34Z</time>
      </trkpt>
      <trkpt lat="42.44547" lon="0.06023">
        <ele>629.6</ele>
        <time>2017-07-31T08:14:40Z</time>
      </trkpt>
      <trkpt lat="42.44548" lon="0.0602">
        <ele>629.5</ele>
        <time>2017-07-31T08:14:52Z</time>
      </trkpt>
      <trkpt lat="42.4455" lon="0.06017">
        <ele>629.1</ele>
        <time>2017-07-31T08:15:00Z</time>
      </trkpt>
      <trkpt lat="42.44552" lon="0.06013">
        <ele>629.1</ele>
        <time>2017-07-31T08:15:04Z</time>
      </trkpt>
      <trkpt lat="42.44554" lon="0.06009">
        <ele>629.5</ele>
        <time>2017-07-31T08:15:10Z</time>
      </trkpt>
      <trkpt lat="42.44558" lon="0.06005">
        <ele>629.9</ele>
        <time>2017-07-31T08:15:12Z</time>
      </trkpt>
      <trkpt lat="42.4456" lon="0.06">
        <ele>630.1</ele>
        <time>2017-07-31T08:15:14Z</time>
      </trkpt>
      <trkpt lat="42.44561" lon="0.05996">
        <ele>629.9</ele>
        <time>2017-07-31T08:15:16Z</time>
      </trkpt>
      <trkpt lat="42.44563" lon="0.05993">
        <ele>630</ele>
        <time>2017-07-31T08:15:21Z</time>
      </trkpt>
      <trkpt lat="42.44565" lon="0.05989">
        <ele>630.5</ele>
        <time>2017-07-31T08:15:24Z</time>
      </trkpt>
      <trkpt lat="42.44566" lon="0.05984">
        <ele>630.2</ele>
        <time>2017-07-31T08:15:27Z</time>
      </trkpt>
      <trkpt lat="42.44568" lon="0.05981">
        <ele>629.5</ele>
        <time>2017-07-31T08:15:31Z</time>
      </trkpt>
      <trkpt lat="42.44571" lon="0.05978">
        <ele>628.7</ele>
        <time>2017-07-31T08:15:35Z</time>
      </trkpt>
      <trkpt lat="42.44573" lon="0.05975">
        <ele>627.9</ele>
        <time>2017-07-31T08:15:38Z</time>
      </trkpt>
      <trkpt lat="42.44575" lon="0.05972">
        <ele>627.1</ele>
        <time>2017-07-31T08:15:43Z</time>
      </trkpt>
      <trkpt lat="42.44578" lon="0.05969">
        <ele>626.2</ele>
        <time>2017-07-31T08:15:46Z</time>
      </trkpt>
      <trkpt lat="42.4458" lon="0.05964">
        <ele>625.8</ele>
        <time>2017-07-31T08:15:48Z</time>
      </trkpt>
      <trkpt lat="42.44582" lon="0.05961">
        <ele>625.5</ele>
        <time>2017-07-31T08:15:50Z</time>
      </trkpt>
      <trkpt lat="42.44585" lon="0.05958">
        <ele>625.4</ele>
        <time>2017-07-31T08:15:52Z</time>
      </trkpt>
      <trkpt lat="42.44587" lon="0.05953">
        <ele>625.5</ele>
        <time>2017-07-31T08:15:54Z</time>
      </trkpt>
      <trkpt lat="42.4459" lon="0.05948">
        <ele>624.5</ele>
        <time>2017-07-31T08:15:56Z</time>
      </trkpt>
      <trkpt lat="42.44593" lon="0.05943">
        <ele>623.7</ele>
        <time>2017-07-31T08:15:58Z</time>
      </trkpt>
      <trkpt lat="42.44595" lon="0.0594">
        <ele>623.6</ele>
        <time>2017-07-31T08:16:04Z</time>
      </trkpt>
      <trkpt lat="42.44597" lon="0.05938">
        <ele>623.6</ele>
        <time>2017-07-31T08:16:10Z</time>
      </trkpt>
      <trkpt lat="42.44599" lon="0.05935">
        <ele>623.4</ele>
        <time>2017-07-31T08:16:14Z</time>
      </trkpt>
      <trkpt lat="42.446" lon="0.05932">
        <ele>623.2</ele>
        <time>2017-07-31T08:16:19Z</time>
      </trkpt>
      <trkpt lat="42.44603" lon="0.05929">
        <ele>623</ele>
        <time>2017-07-31T08:16:23Z</time>
      </trkpt>
      <trkpt lat="42.44606" lon="0.05926">
        <ele>623.1</ele>
        <time>2017-07-31T08:16:27Z</time>
      </trkpt>
      <trkpt lat="42.44608" lon="0.05924">
        <ele>623.2</ele>
        <time>2017-07-31T08:16:32Z</time>
      </trkpt>
      <trkpt lat="42.4461" lon="0.0592">
        <ele>623.6</ele>
        <time>2017-07-31T08:16:36Z</time>
      </trkpt>
      <trkpt lat="42.44612" lon="0.05916">
        <ele>624.1</ele>
        <time>2017-07-31T08:16:40Z</time>
      </trkpt>
      <trkpt lat="42.44613" lon="0.05913">
        <ele>624.7</ele>
        <time>2017-07-31T08:16:45Z</time>
      </trkpt>
      <trkpt lat="42.44615" lon="0.0591">
        <ele>625.4</ele>
        <time>2017-07-31T08:16:49Z</time>
      </trkpt>
      <trkpt lat="42.44617" lon="0.05906">
        <ele>626.2</ele>
        <time>2017-07-31T08:16:54Z</time>
      </trkpt>
      <trkpt lat="42.44619" lon="0.05902">
        <ele>626.7</ele>
        <time>2017-07-31T08:16:57Z</time>
      </trkpt>
      <trkpt lat="42.44623" lon="0.05898">
        <ele>628.2</ele>
        <time>2017-07-31T08:16:59Z</time>
      </trkpt>
      <trkpt lat="42.44625" lon="0.05895">
        <ele>629.3</ele>
        <time>2017-07-31T08:17:00Z</time>
      </trkpt>
      <trkpt lat="42.44627" lon="0.05893">
        <ele>629.1</ele>
        <time>2017-07-31T08:17:01Z</time>
      </trkpt>
      <trkpt lat="42.4463" lon="0.05889">
        <ele>628.6</ele>
        <time>2017-07-31T08:17:03Z</time>
      </trkpt>
      <trkpt lat="42.44632" lon="0.05885">
        <ele>628.3</ele>
        <time>2017-07-31T08:17:11Z</time>
      </trkpt>
      <trkpt lat="42.44635" lon="0.05883">
        <ele>628</ele>
        <time>2017-07-31T08:17:15Z</time>
      </trkpt>
      <trkpt lat="42.44637" lon="0.05882">
        <ele>627.5</ele>
        <time>2017-07-31T08:17:18Z</time>
      </trkpt>
      <trkpt lat="42.4464" lon="0.05879">
        <ele>627.8</ele>
        <time>2017-07-31T08:17:21Z</time>
      </trkpt>
      <trkpt lat="42.44643" lon="0.05878">
        <ele>628.2</ele>
        <time>2017-07-31T08:17:24Z</time>
      </trkpt>
      <trkpt lat="42.44645" lon="0.05877">
        <ele>628.5</ele>
        <time>2017-07-31T08:17:31Z</time>
      </trkpt>
      <trkpt lat="42.44646" lon="0.05873">
        <ele>628.6</ele>
        <time>2017-07-31T08:17:38Z</time>
      </trkpt>
      <trkpt lat="42.44649" lon="0.05871">
        <ele>628.4</ele>
        <time>2017-07-31T08:17:46Z</time>
      </trkpt>
      <trkpt lat="42.44651" lon="0.0587">
        <ele>628.2</ele>
        <time>2017-07-31T08:17:54Z</time>
      </trkpt>
      <trkpt lat="42.44653" lon="0.05866">
        <ele>628.8</ele>
        <time>2017-07-31T08:17:59Z</time>
      </trkpt>
      <trkpt lat="42.44657" lon="0.05862">
        <ele>629.3</ele>
        <time>2017-07-31T08:18:02Z</time>
      </trkpt>
      <trkpt lat="42.4466" lon="0.05857">
        <ele>629.7</ele>
        <time>2017-07-31T08:18:04Z</time>
      </trkpt>
      <trkpt lat="42.44662" lon="0.05854">
        <ele>630</ele>
        <time>2017-07-31T08:18:05Z</time>
      </trkpt>
      <trkpt lat="42.44664" lon="0.05852">
        <ele>630.1</ele>
        <time>2017-07-31T08:18:06Z</time>
      </trkpt>
      <trkpt lat="42.44666" lon="0.05849">
        <ele>630.3</ele>
        <time>2017-07-31T08:18:07Z</time>
      </trkpt>
      <trkpt lat="42.44669" lon="0.05847">
        <ele>630.5</ele>
        <time>2017-07-31T08:18:08Z</time>
      </trkpt>
      <trkpt lat="42.44672" lon="0.05845">
        <ele>631</ele>
        <time>2017-07-31T08:18:09Z</time>
      </trkpt>
      <trkpt lat="42.44674" lon="0.05844">
        <ele>631.5</ele>
        <time>2017-07-31T08:18:10Z</time>
      </trkpt>
      <trkpt lat="42.44679" lon="0.05841">
        <ele>631.8</ele>
        <time>2017-07-31T08:18:12Z</time>
      </trkpt>
      <trkpt lat="42.44682" lon="0.0584">
        <ele>631.9</ele>
        <time>2017-07-31T08:18:13Z</time>
      </trkpt>
      <trkpt lat="42.44685" lon="0.05838">
        <ele>631.8</ele>
        <time>2017-07-31T08:18:14Z</time>
      </trkpt>
      <trkpt lat="42.44687" lon="0.05836">
        <ele>631.8</ele>
        <time>2017-07-31T08:18:15Z</time>
      </trkpt>
      <trkpt lat="42.4469" lon="0.05834">
        <ele>631.7</ele>
        <time>2017-07-31T08:18:16Z</time>
      </trkpt>
      <trkpt lat="42.44693" lon="0.05831">
        <ele>632.4</ele>
        <time>2017-07-31T08:18:17Z</time>
      </trkpt>
      <trkpt lat="42.44695" lon="0.05828">
        <ele>633</ele>
        <time>2017-07-31T08:18:18Z</time>
      </trkpt>
      <trkpt lat="42.44697" lon="0.05826">
        <ele>633.2</ele>
        <time>2017-07-31T08:18:19Z</time>
      </trkpt>
      <trkpt lat="42.447" lon="0.05821">
        <ele>633.2</ele>
        <time>2017-07-31T08:18:21Z</time>
      </trkpt>
      <trkpt lat="42.44702" lon="0.05818">
        <ele>633.7</ele>
        <time>2017-07-31T08:18:23Z</time>
      </trkpt>
      <trkpt lat="42.44703" lon="0.05814">
        <ele>634.1</ele>
        <time>2017-07-31T08:18:25Z</time>
      </trkpt>
      <trkpt lat="42.44705" lon="0.05811">
        <ele>634.8</ele>
        <time>2017-07-31T08:18:27Z</time>
      </trkpt>
      <trkpt lat="42.44706" lon="0.05807">
        <ele>635.6</ele>
        <time>2017-07-31T08:18:33Z</time>
      </trkpt>
      <trkpt lat="42.4471" lon="0.05806">
        <ele>635.8</ele>
        <time>2017-07-31T08:18:39Z</time>
      </trkpt>
      <trkpt lat="42.44712" lon="0.05804">
        <ele>635.6</ele>
        <time>2017-07-31T08:18:42Z</time>
      </trkpt>
      <trkpt lat="42.44714" lon="0.05799">
        <ele>635.4</ele>
        <time>2017-07-31T08:18:45Z</time>
      </trkpt>
      <trkpt lat="42.44717" lon="0.05795">
        <ele>635.1</ele>
        <time>2017-07-31T08:18:47Z</time>
      </trkpt>
      <trkpt lat="42.44721" lon="0.0579">
        <ele>635</ele>
        <time>2017-07-31T08:18:49Z</time>
      </trkpt>
      <trkpt lat="42.44723" lon="0.05788">
        <ele>635.1</ele>
        <time>2017-07-31T08:18:50Z</time>
      </trkpt>
      <trkpt lat="42.44725" lon="0.05785">
        <ele>635.2</ele>
        <time>2017-07-31T08:18:51Z</time>
      </trkpt>
      <trkpt lat="42.44726" lon="0.05781">
        <ele>635.4</ele>
        <time>2017-07-31T08:18:52Z</time>
      </trkpt>
      <trkpt lat="42.44728" lon="0.05778">
        <ele>635.6</ele>
        <time>2017-07-31T08:18:53Z</time>
      </trkpt>
      <trkpt lat="42.4473" lon="0.05775">
        <ele>635.9</ele>
        <time>2017-07-31T08:18:54Z</time>
      </trkpt>
      <trkpt lat="42.44731" lon="0.05772">
        <ele>636.1</ele>
        <time>2017-07-31T08:18:55Z</time>
      </trkpt>
      <trkpt lat="42.44733" lon="0.05768">
        <ele>636.1</ele>
        <time>2017-07-31T08:18:56Z</time>
      </trkpt>
      <trkpt lat="42.44735" lon="0.05762">
        <ele>635.5</ele>
        <time>2017-07-31T08:18:58Z</time>
      </trkpt>
      <trkpt lat="42.44737" lon="0.05756">
        <ele>637.6</ele>
        <time>2017-07-31T08:19:00Z</time>
      </trkpt>
      <trkpt lat="42.44739" lon="0.0575">
        <ele>639.1</ele>
        <time>2017-07-31T08:19:02Z</time>
      </trkpt>
      <trkpt lat="42.44742" lon="0.05746">
        <ele>639.9</ele>
        <time>2017-07-31T08:19:04Z</time>
      </trkpt>
      <trkpt lat="42.44744" lon="0.05743">
        <ele>640</ele>
        <time>2017-07-31T08:19:08Z</time>
      </trkpt>
      <trkpt lat="42.44744" lon="0.05739">
        <ele>640</ele>
        <time>2017-07-31T08:19:23Z</time>
      </trkpt>
      <trkpt lat="42.44743" lon="0.05735">
        <ele>640</ele>
        <time>2017-07-31T08:19:26Z</time>
      </trkpt>
      <trkpt lat="42.44742" lon="0.05731">
        <ele>636.7</ele>
        <time>2017-07-31T08:19:30Z</time>
      </trkpt>
      <trkpt lat="42.44744" lon="0.05729">
        <ele>630.8</ele>
        <time>2017-07-31T08:19:36Z</time>
      </trkpt>
      <trkpt lat="42.44747" lon="0.05729">
        <ele>624.6</ele>
        <time>2017-07-31T08:19:43Z</time>
      </trkpt>
      <trkpt lat="42.4475" lon="0.05728">
        <ele>618.5</ele>
        <time>2017-07-31T08:19:54Z</time>
      </trkpt>
      <trkpt lat="42.44753" lon="0.05727">
        <ele>613</ele>
        <time>2017-07-31T08:19:59Z</time>
      </trkpt>
      <trkpt lat="42.44755" lon="0.05723">
        <ele>613</ele>
        <time>2017-07-31T08:20:03Z</time>
      </trkpt>
      <trkpt lat="42.44756" lon="0.0572">
        <ele>613</ele>
        <time>2017-07-31T08:20:07Z</time>
      </trkpt>
      <trkpt lat="42.44756" lon="0.05715">
        <ele>613.1</ele>
        <time>2017-07-31T08:20:12Z</time>
      </trkpt>
      <trkpt lat="42.44759" lon="0.05713">
        <ele>613.1</ele>
        <time>2017-07-31T08:20:16Z</time>
      </trkpt>
      <trkpt lat="42.44761" lon="0.05716">
        <ele>613.1</ele>
        <time>2017-07-31T08:20:19Z</time>
      </trkpt>
      <trkpt lat="42.44763" lon="0.05719">
        <ele>613.1</ele>
        <time>2017-07-31T08:20:22Z</time>
      </trkpt>
      <trkpt lat="42.44764" lon="0.05723">
        <ele>613.1</ele>
        <time>2017-07-31T08:20:26Z</time>
      </trkpt>
      <trkpt lat="42.44766" lon="0.05726">
        <ele>613.1</ele>
        <time>2017-07-31T08:20:31Z</time>
      </trkpt>
      <trkpt lat="42.44769" lon="0.05725">
        <ele>613.1</ele>
        <time>2017-07-31T08:20:35Z</time>
      </trkpt>
      <trkpt lat="42.44771" lon="0.05725">
        <ele>613.1</ele>
        <time>2017-07-31T08:20:41Z</time>
      </trkpt>
      <trkpt lat="42.44774" lon="0.05727">
        <ele>613.1</ele>
        <time>2017-07-31T08:20:46Z</time>
      </trkpt>
      <trkpt lat="42.44778" lon="0.05728">
        <ele>613.1</ele>
        <time>2017-07-31T08:20:50Z</time>
      </trkpt>
      <trkpt lat="42.44781" lon="0.05729">
        <ele>613.1</ele>
        <time>2017-07-31T08:20:54Z</time>
      </trkpt>
      <trkpt lat="42.44784" lon="0.05729">
        <ele>613.1</ele>
        <time>2017-07-31T08:20:59Z</time>
      </trkpt>
      <trkpt lat="42.44784" lon="0.05725">
        <ele>613.1</ele>
        <time>2017-07-31T08:21:03Z</time>
      </trkpt>
      <trkpt lat="42.44782" lon="0.05722">
        <ele>613.1</ele>
        <time>2017-07-31T08:21:07Z</time>
      </trkpt>
      <trkpt lat="42.44784" lon="0.05718">
        <ele>613.1</ele>
        <time>2017-07-31T08:21:13Z</time>
      </trkpt>
      <trkpt lat="42.44786" lon="0.05717">
        <ele>613.1</ele>
        <time>2017-07-31T08:21:17Z</time>
      </trkpt>
      <trkpt lat="42.44788" lon="0.05713">
        <ele>613.1</ele>
        <time>2017-07-31T08:21:20Z</time>
      </trkpt>
      <trkpt lat="42.44787" lon="0.0571">
        <ele>613.1</ele>
        <time>2017-07-31T08:21:28Z</time>
      </trkpt>
      <trkpt lat="42.44789" lon="0.05708">
        <ele>613.1</ele>
        <time>2017-07-31T08:21:34Z</time>
      </trkpt>
      <trkpt lat="42.44793" lon="0.05708">
        <ele>613.1</ele>
        <time>2017-07-31T08:21:39Z</time>
      </trkpt>
      <trkpt lat="42.44796" lon="0.05706">
        <ele>613.1</ele>
        <time>2017-07-31T08:21:42Z</time>
      </trkpt>
      <trkpt lat="42.44798" lon="0.05704">
        <ele>613.1</ele>
        <time>2017-07-31T08:21:47Z</time>
      </trkpt>
      <trkpt lat="42.44801" lon="0.05701">
        <ele>613</ele>
        <time>2017-07-31T08:21:52Z</time>
      </trkpt>
      <trkpt lat="42.44802" lon="0.05697">
        <ele>613</ele>
        <time>2017-07-31T08:21:57Z</time>
      </trkpt>
      <trkpt lat="42.44803" lon="0.05694">
        <ele>613</ele>
        <time>2017-07-31T08:22:04Z</time>
      </trkpt>
      <trkpt lat="42.44801" lon="0.0569">
        <ele>613</ele>
        <time>2017-07-31T08:22:28Z</time>
      </trkpt>
      <trkpt lat="42.44799" lon="0.05687">
        <ele>613</ele>
        <time>2017-07-31T08:22:30Z</time>
      </trkpt>
      <trkpt lat="42.44795" lon="0.05684">
        <ele>613.3</ele>
        <time>2017-07-31T08:22:32Z</time>
      </trkpt>
      <trkpt lat="42.44793" lon="0.05681">
        <ele>613.5</ele>
        <time>2017-07-31T08:22:33Z</time>
      </trkpt>
      <trkpt lat="42.44791" lon="0.05679">
        <ele>613.7</ele>
        <time>2017-07-31T08:22:34Z</time>
      </trkpt>
      <trkpt lat="42.44789" lon="0.05677">
        <ele>613.9</ele>
        <time>2017-07-31T08:22:35Z</time>
      </trkpt>
      <trkpt lat="42.44786" lon="0.05674">
        <ele>614.1</ele>
        <time>2017-07-31T08:22:36Z</time>
      </trkpt>
      <trkpt lat="42.44784" lon="0.05671">
        <ele>614.3</ele>
        <time>2017-07-31T08:22:37Z</time>
      </trkpt>
      <trkpt lat="42.44782" lon="0.05667">
        <ele>614.5</ele>
        <time>2017-07-31T08:22:38Z</time>
      </trkpt>
      <trkpt lat="42.44781" lon="0.05663">
        <ele>614.7</ele>
        <time>2017-07-31T08:22:39Z</time>
      </trkpt>
      <trkpt lat="42.44779" lon="0.05659">
        <ele>614.9</ele>
        <time>2017-07-31T08:22:40Z</time>
      </trkpt>
      <trkpt lat="42.44778" lon="0.05655">
        <ele>615.2</ele>
        <time>2017-07-31T08:22:41Z</time>
      </trkpt>
      <trkpt lat="42.44777" lon="0.0565">
        <ele>615.3</ele>
        <time>2017-07-31T08:22:42Z</time>
      </trkpt>
      <trkpt lat="42.44776" lon="0.05645">
        <ele>615.5</ele>
        <time>2017-07-31T08:22:43Z</time>
      </trkpt>
      <trkpt lat="42.44776" lon="0.0564">
        <ele>615.7</ele>
        <time>2017-07-31T08:22:44Z</time>
      </trkpt>
      <trkpt lat="42.44775" lon="0.05634">
        <ele>615.9</ele>
        <time>2017-07-31T08:22:45Z</time>
      </trkpt>
      <trkpt lat="42.44774" lon="0.05629">
        <ele>616.1</ele>
        <time>2017-07-31T08:22:46Z</time>
      </trkpt>
      <trkpt lat="42.44773" lon="0.05623">
        <ele>616.4</ele>
        <time>2017-07-31T08:22:47Z</time>
      </trkpt>
      <trkpt lat="42.44772" lon="0.05618">
        <ele>616.7</ele>
        <time>2017-07-31T08:22:48Z</time>
      </trkpt>
      <trkpt lat="42.44771" lon="0.05612">
        <ele>617.1</ele>
        <time>2017-07-31T08:22:49Z</time>
      </trkpt>
      <trkpt lat="42.4477" lon="0.05607">
        <ele>617.4</ele>
        <time>2017-07-31T08:22:50Z</time>
      </trkpt>
      <trkpt lat="42.44768" lon="0.05602">
        <ele>617.7</ele>
        <time>2017-07-31T08:22:51Z</time>
      </trkpt>
      <trkpt lat="42.44766" lon="0.05596">
        <ele>618.1</ele>
        <time>2017-07-31T08:22:52Z</time>
      </trkpt>
      <trkpt lat="42.44764" lon="0.05592">
        <ele>618.5</ele>
        <time>2017-07-31T08:22:53Z</time>
      </trkpt>
      <trkpt lat="42.44761" lon="0.05587">
        <ele>618.9</ele>
        <time>2017-07-31T08:22:54Z</time>
      </trkpt>
      <trkpt lat="42.44759" lon="0.05583">
        <ele>619.3</ele>
        <time>2017-07-31T08:22:55Z</time>
      </trkpt>
      <trkpt lat="42.44756" lon="0.05579">
        <ele>619.7</ele>
        <time>2017-07-31T08:22:56Z</time>
      </trkpt>
      <trkpt lat="42.44752" lon="0.05575">
        <ele>620.1</ele>
        <time>2017-07-31T08:22:57Z</time>
      </trkpt>
      <trkpt lat="42.44749" lon="0.05572">
        <ele>620.5</ele>
        <time>2017-07-31T08:22:58Z</time>
      </trkpt>
      <trkpt lat="42.44746" lon="0.05569">
        <ele>620.9</ele>
        <time>2017-07-31T08:22:59Z</time>
      </trkpt>
      <trkpt lat="42.44743" lon="0.05566">
        <ele>621.3</ele>
        <time>2017-07-31T08:23:00Z</time>
      </trkpt>
      <trkpt lat="42.4474" lon="0.05563">
        <ele>621.6</ele>
        <time>2017-07-31T08:23:01Z</time>
      </trkpt>
      <trkpt lat="42.44737" lon="0.05561">
        <ele>621.9</ele>
        <time>2017-07-31T08:23:02Z</time>
      </trkpt>
      <trkpt lat="42.44734" lon="0.05558">
        <ele>622.3</ele>
        <time>2017-07-31T08:23:03Z</time>
      </trkpt>
      <trkpt lat="42.44732" lon="0.05556">
        <ele>622.6</ele>
        <time>2017-07-31T08:23:04Z</time>
      </trkpt>
      <trkpt lat="42.4473" lon="0.05553">
        <ele>622.9</ele>
        <time>2017-07-31T08:23:05Z</time>
      </trkpt>
      <trkpt lat="42.44727" lon="0.0555">
        <ele>623.2</ele>
        <time>2017-07-31T08:23:06Z</time>
      </trkpt>
      <trkpt lat="42.44725" lon="0.05547">
        <ele>623.5</ele>
        <time>2017-07-31T08:23:07Z</time>
      </trkpt>
      <trkpt lat="42.44723" lon="0.05544">
        <ele>623.8</ele>
        <time>2017-07-31T08:23:08Z</time>
      </trkpt>
      <trkpt lat="42.44721" lon="0.05541">
        <ele>624.1</ele>
        <time>2017-07-31T08:23:09Z</time>
      </trkpt>
      <trkpt lat="42.44719" lon="0.05538">
        <ele>624.3</ele>
        <time>2017-07-31T08:23:10Z</time>
      </trkpt>
      <trkpt lat="42.44717" lon="0.05535">
        <ele>624.6</ele>
        <time>2017-07-31T08:23:11Z</time>
      </trkpt>
      <trkpt lat="42.44715" lon="0.05531">
        <ele>624.9</ele>
        <time>2017-07-31T08:23:12Z</time>
      </trkpt>
      <trkpt lat="42.44714" lon="0.05528">
        <ele>625.2</ele>
        <time>2017-07-31T08:23:13Z</time>
      </trkpt>
      <trkpt lat="42.44712" lon="0.05524">
        <ele>625.5</ele>
        <time>2017-07-31T08:23:14Z</time>
      </trkpt>
      <trkpt lat="42.44711" lon="0.0552">
        <ele>625.8</ele>
        <time>2017-07-31T08:23:15Z</time>
      </trkpt>
      <trkpt lat="42.44709" lon="0.05516">
        <ele>626.1</ele>
        <time>2017-07-31T08:23:16Z</time>
      </trkpt>
      <trkpt lat="42.44708" lon="0.05513">
        <ele>626.3</ele>
        <time>2017-07-31T08:23:17Z</time>
      </trkpt>
      <trkpt lat="42.44706" lon="0.0551">
        <ele>626.6</ele>
        <time>2017-07-31T08:23:18Z</time>
      </trkpt>
      <trkpt lat="42.44705" lon="0.05507">
        <ele>626.9</ele>
        <time>2017-07-31T08:23:19Z</time>
      </trkpt>
      <trkpt lat="42.44703" lon="0.05503">
        <ele>627.1</ele>
        <time>2017-07-31T08:23:20Z</time>
      </trkpt>
      <trkpt lat="42.44702" lon="0.055">
        <ele>627.3</ele>
        <time>2017-07-31T08:23:21Z</time>
      </trkpt>
      <trkpt lat="42.44701" lon="0.05496">
        <ele>627.6</ele>
        <time>2017-07-31T08:23:22Z</time>
      </trkpt>
      <trkpt lat="42.44699" lon="0.05493">
        <ele>627.8</ele>
        <time>2017-07-31T08:23:23Z</time>
      </trkpt>
      <trkpt lat="42.44697" lon="0.05487">
        <ele>628.3</ele>
        <time>2017-07-31T08:23:25Z</time>
      </trkpt>
      <trkpt lat="42.44695" lon="0.05484">
        <ele>628.5</ele>
        <time>2017-07-31T08:23:26Z</time>
      </trkpt>
      <trkpt lat="42.44694" lon="0.05481">
        <ele>628.7</ele>
        <time>2017-07-31T08:23:27Z</time>
      </trkpt>
      <trkpt lat="42.44692" lon="0.05477">
        <ele>629</ele>
        <time>2017-07-31T08:23:28Z</time>
      </trkpt>
      <trkpt lat="42.44691" lon="0.05474">
        <ele>629.2</ele>
        <time>2017-07-31T08:23:29Z</time>
      </trkpt>
      <trkpt lat="42.4469" lon="0.0547">
        <ele>629.5</ele>
        <time>2017-07-31T08:23:30Z</time>
      </trkpt>
      <trkpt lat="42.44689" lon="0.05467">
        <ele>629.7</ele>
        <time>2017-07-31T08:23:31Z</time>
      </trkpt>
      <trkpt lat="42.44688" lon="0.05464">
        <ele>629.9</ele>
        <time>2017-07-31T08:23:32Z</time>
      </trkpt>
      <trkpt lat="42.44686" lon="0.0546">
        <ele>630.1</ele>
        <time>2017-07-31T08:23:33Z</time>
      </trkpt>
      <trkpt lat="42.44685" lon="0.05457">
        <ele>630.4</ele>
        <time>2017-07-31T08:23:34Z</time>
      </trkpt>
      <trkpt lat="42.44682" lon="0.05451">
        <ele>630.8</ele>
        <time>2017-07-31T08:23:36Z</time>
      </trkpt>
      <trkpt lat="42.4468" lon="0.05445">
        <ele>631.3</ele>
        <time>2017-07-31T08:23:38Z</time>
      </trkpt>
      <trkpt lat="42.44677" lon="0.05439">
        <ele>631.8</ele>
        <time>2017-07-31T08:23:40Z</time>
      </trkpt>
      <trkpt lat="42.44676" lon="0.05435">
        <ele>632</ele>
        <time>2017-07-31T08:23:41Z</time>
      </trkpt>
      <trkpt lat="42.44675" lon="0.05432">
        <ele>632.2</ele>
        <time>2017-07-31T08:23:42Z</time>
      </trkpt>
      <trkpt lat="42.44674" lon="0.05428">
        <ele>632.5</ele>
        <time>2017-07-31T08:23:43Z</time>
      </trkpt>
      <trkpt lat="42.44672" lon="0.05421">
        <ele>632.9</ele>
        <time>2017-07-31T08:23:45Z</time>
      </trkpt>
      <trkpt lat="42.4467" lon="0.05415">
        <ele>633.4</ele>
        <time>2017-07-31T08:23:47Z</time>
      </trkpt>
      <trkpt lat="42.44669" lon="0.05408">
        <ele>633.9</ele>
        <time>2017-07-31T08:23:49Z</time>
      </trkpt>
      <trkpt lat="42.44669" lon="0.05401">
        <ele>634.3</ele>
        <time>2017-07-31T08:23:51Z</time>
      </trkpt>
      <trkpt lat="42.44668" lon="0.05394">
        <ele>634.8</ele>
        <time>2017-07-31T08:23:53Z</time>
      </trkpt>
      <trkpt lat="42.44667" lon="0.05387">
        <ele>635.3</ele>
        <time>2017-07-31T08:23:55Z</time>
      </trkpt>
      <trkpt lat="42.44666" lon="0.0538">
        <ele>635.7</ele>
        <time>2017-07-31T08:23:57Z</time>
      </trkpt>
      <trkpt lat="42.44667" lon="0.05374">
        <ele>636.2</ele>
        <time>2017-07-31T08:23:59Z</time>
      </trkpt>
      <trkpt lat="42.44667" lon="0.05367">
        <ele>636.7</ele>
        <time>2017-07-31T08:24:01Z</time>
      </trkpt>
      <trkpt lat="42.44666" lon="0.0536">
        <ele>637.2</ele>
        <time>2017-07-31T08:24:03Z</time>
      </trkpt>
      <trkpt lat="42.44666" lon="0.05353">
        <ele>637.7</ele>
        <time>2017-07-31T08:24:05Z</time>
      </trkpt>
      <trkpt lat="42.44666" lon="0.05347">
        <ele>638.2</ele>
        <time>2017-07-31T08:24:07Z</time>
      </trkpt>
      <trkpt lat="42.44667" lon="0.0534">
        <ele>638.6</ele>
        <time>2017-07-31T08:24:09Z</time>
      </trkpt>
      <trkpt lat="42.44667" lon="0.05333">
        <ele>639.1</ele>
        <time>2017-07-31T08:24:11Z</time>
      </trkpt>
      <trkpt lat="42.44667" lon="0.05326">
        <ele>639.6</ele>
        <time>2017-07-31T08:24:13Z</time>
      </trkpt>
      <trkpt lat="42.44668" lon="0.05319">
        <ele>640.1</ele>
        <time>2017-07-31T08:24:15Z</time>
      </trkpt>
      <trkpt lat="42.44668" lon="0.05312">
        <ele>640.6</ele>
        <time>2017-07-31T08:24:17Z</time>
      </trkpt>
      <trkpt lat="42.44668" lon="0.05305">
        <ele>641.1</ele>
        <time>2017-07-31T08:24:19Z</time>
      </trkpt>
      <trkpt lat="42.44669" lon="0.05298">
        <ele>641.6</ele>
        <time>2017-07-31T08:24:21Z</time>
      </trkpt>
      <trkpt lat="42.44669" lon="0.05292">
        <ele>642.1</ele>
        <time>2017-07-31T08:24:23Z</time>
      </trkpt>
      <trkpt lat="42.4467" lon="0.05285">
        <ele>642.6</ele>
        <time>2017-07-31T08:24:25Z</time>
      </trkpt>
      <trkpt lat="42.4467" lon="0.05278">
        <ele>643.1</ele>
        <time>2017-07-31T08:24:27Z</time>
      </trkpt>
      <trkpt lat="42.4467" lon="0.05271">
        <ele>643.6</ele>
        <time>2017-07-31T08:24:29Z</time>
      </trkpt>
      <trkpt lat="42.4467" lon="0.05263">
        <ele>644.1</ele>
        <time>2017-07-31T08:24:31Z</time>
      </trkpt>
      <trkpt lat="42.4467" lon="0.05256">
        <ele>644.6</ele>
        <time>2017-07-31T08:24:33Z</time>
      </trkpt>
      <trkpt lat="42.4467" lon="0.05249">
        <ele>645.1</ele>
        <time>2017-07-31T08:24:35Z</time>
      </trkpt>
      <trkpt lat="42.44669" lon="0.05242">
        <ele>645.6</ele>
        <time>2017-07-31T08:24:37Z</time>
      </trkpt>
      <trkpt lat="42.44669" lon="0.05236">
        <ele>646</ele>
        <time>2017-07-31T08:24:39Z</time>
      </trkpt>
      <trkpt lat="42.44669" lon="0.05229">
        <ele>646.5</ele>
        <time>2017-07-31T08:24:41Z</time>
      </trkpt>
      <trkpt lat="42.44669" lon="0.05222">
        <ele>646.9</ele>
        <time>2017-07-31T08:24:43Z</time>
      </trkpt>
      <trkpt lat="42.4467" lon="0.05216">
        <ele>647.3</ele>
        <time>2017-07-31T08:24:45Z</time>
      </trkpt>
      <trkpt lat="42.44671" lon="0.05209">
        <ele>647.7</ele>
        <time>2017-07-31T08:24:47Z</time>
      </trkpt>
      <trkpt lat="42.44672" lon="0.05202">
        <ele>648.1</ele>
        <time>2017-07-31T08:24:49Z</time>
      </trkpt>
      <trkpt lat="42.44673" lon="0.05195">
        <ele>648.5</ele>
        <time>2017-07-31T08:24:51Z</time>
      </trkpt>
      <trkpt lat="42.44675" lon="0.05189">
        <ele>648.9</ele>
        <time>2017-07-31T08:24:53Z</time>
      </trkpt>
      <trkpt lat="42.44677" lon="0.05182">
        <ele>649.3</ele>
        <time>2017-07-31T08:24:55Z</time>
      </trkpt>
      <trkpt lat="42.44679" lon="0.05176">
        <ele>649.7</ele>
        <time>2017-07-31T08:24:57Z</time>
      </trkpt>
      <trkpt lat="42.44681" lon="0.05169">
        <ele>650.1</ele>
        <time>2017-07-31T08:24:59Z</time>
      </trkpt>
      <trkpt lat="42.44683" lon="0.05162">
        <ele>650.5</ele>
        <time>2017-07-31T08:25:01Z</time>
      </trkpt>
      <trkpt lat="42.44684" lon="0.05155">
        <ele>650.9</ele>
        <time>2017-07-31T08:25:03Z</time>
      </trkpt>
      <trkpt lat="42.44685" lon="0.05149">
        <ele>651.3</ele>
        <time>2017-07-31T08:25:05Z</time>
      </trkpt>
      <trkpt lat="42.44686" lon="0.05142">
        <ele>651.6</ele>
        <time>2017-07-31T08:25:07Z</time>
      </trkpt>
      <trkpt lat="42.44686" lon="0.05135">
        <ele>652</ele>
        <time>2017-07-31T08:25:09Z</time>
      </trkpt>
      <trkpt lat="42.44685" lon="0.05129">
        <ele>652.3</ele>
        <time>2017-07-31T08:25:11Z</time>
      </trkpt>
      <trkpt lat="42.44685" lon="0.05122">
        <ele>652.7</ele>
        <time>2017-07-31T08:25:13Z</time>
      </trkpt>
      <trkpt lat="42.44685" lon="0.05116">
        <ele>653</ele>
        <time>2017-07-31T08:25:15Z</time>
      </trkpt>
      <trkpt lat="42.44686" lon="0.05109">
        <ele>653.3</ele>
        <time>2017-07-31T08:25:17Z</time>
      </trkpt>
      <trkpt lat="42.44686" lon="0.05103">
        <ele>653.6</ele>
        <time>2017-07-31T08:25:19Z</time>
      </trkpt>
      <trkpt lat="42.44687" lon="0.05097">
        <ele>653.9</ele>
        <time>2017-07-31T08:25:21Z</time>
      </trkpt>
      <trkpt lat="42.44689" lon="0.05091">
        <ele>654.2</ele>
        <time>2017-07-31T08:25:23Z</time>
      </trkpt>
      <trkpt lat="42.44691" lon="0.05086">
        <ele>654.4</ele>
        <time>2017-07-31T08:25:25Z</time>
      </trkpt>
      <trkpt lat="42.44694" lon="0.05081">
        <ele>654.7</ele>
        <time>2017-07-31T08:25:27Z</time>
      </trkpt>
      <trkpt lat="42.44697" lon="0.05076">
        <ele>654.9</ele>
        <time>2017-07-31T08:25:29Z</time>
      </trkpt>
      <trkpt lat="42.447" lon="0.05072">
        <ele>655.1</ele>
        <time>2017-07-31T08:25:31Z</time>
      </trkpt>
      <trkpt lat="42.44704" lon="0.05068">
        <ele>655.2</ele>
        <time>2017-07-31T08:25:33Z</time>
      </trkpt>
      <trkpt lat="42.44708" lon="0.05064">
        <ele>655.3</ele>
        <time>2017-07-31T08:25:35Z</time>
      </trkpt>
      <trkpt lat="42.44712" lon="0.0506">
        <ele>655.4</ele>
        <time>2017-07-31T08:25:37Z</time>
      </trkpt>
      <trkpt lat="42.44716" lon="0.05055">
        <ele>655.5</ele>
        <time>2017-07-31T08:25:39Z</time>
      </trkpt>
      <trkpt lat="42.44719" lon="0.0505">
        <ele>655.6</ele>
        <time>2017-07-31T08:25:41Z</time>
      </trkpt>
      <trkpt lat="42.44722" lon="0.05045">
        <ele>655.7</ele>
        <time>2017-07-31T08:25:43Z</time>
      </trkpt>
      <trkpt lat="42.44724" lon="0.05038">
        <ele>655.7</ele>
        <time>2017-07-31T08:25:45Z</time>
      </trkpt>
      <trkpt lat="42.44725" lon="0.05035">
        <ele>655.7</ele>
        <time>2017-07-31T08:25:46Z</time>
      </trkpt>
      <trkpt lat="42.44725" lon="0.05031">
        <ele>655.8</ele>
        <time>2017-07-31T08:25:47Z</time>
      </trkpt>
      <trkpt lat="42.44726" lon="0.05027">
        <ele>655.8</ele>
        <time>2017-07-31T08:25:48Z</time>
      </trkpt>
      <trkpt lat="42.44726" lon="0.05023">
        <ele>655.8</ele>
        <time>2017-07-31T08:25:49Z</time>
      </trkpt>
      <trkpt lat="42.44727" lon="0.05019">
        <ele>655.9</ele>
        <time>2017-07-31T08:25:50Z</time>
      </trkpt>
      <trkpt lat="42.44727" lon="0.05015">
        <ele>655.9</ele>
        <time>2017-07-31T08:25:51Z</time>
      </trkpt>
      <trkpt lat="42.44728" lon="0.05011">
        <ele>655.9</ele>
        <time>2017-07-31T08:25:52Z</time>
      </trkpt>
      <trkpt lat="42.44728" lon="0.05007">
        <ele>656</ele>
        <time>2017-07-31T08:25:53Z</time>
      </trkpt>
      <trkpt lat="42.44728" lon="0.05003">
        <ele>656</ele>
        <time>2017-07-31T08:25:54Z</time>
      </trkpt>
      <trkpt lat="42.44728" lon="0.05">
        <ele>656.1</ele>
        <time>2017-07-31T08:25:55Z</time>
      </trkpt>
      <trkpt lat="42.44728" lon="0.04996">
        <ele>656.1</ele>
        <time>2017-07-31T08:25:56Z</time>
      </trkpt>
      <trkpt lat="42.44728" lon="0.04992">
        <ele>656.1</ele>
        <time>2017-07-31T08:25:57Z</time>
      </trkpt>
      <trkpt lat="42.44728" lon="0.04987">
        <ele>656.2</ele>
        <time>2017-07-31T08:25:58Z</time>
      </trkpt>
      <trkpt lat="42.44727" lon="0.04983">
        <ele>656.2</ele>
        <time>2017-07-31T08:25:59Z</time>
      </trkpt>
      <trkpt lat="42.44726" lon="0.0498">
        <ele>656.3</ele>
        <time>2017-07-31T08:26:00Z</time>
      </trkpt>
      <trkpt lat="42.44725" lon="0.04976">
        <ele>656.3</ele>
        <time>2017-07-31T08:26:01Z</time>
      </trkpt>
      <trkpt lat="42.44723" lon="0.04972">
        <ele>656.4</ele>
        <time>2017-07-31T08:26:02Z</time>
      </trkpt>
      <trkpt lat="42.44721" lon="0.04968">
        <ele>656.5</ele>
        <time>2017-07-31T08:26:03Z</time>
      </trkpt>
      <trkpt lat="42.44718" lon="0.04964">
        <ele>656.7</ele>
        <time>2017-07-31T08:26:04Z</time>
      </trkpt>
      <trkpt lat="42.44716" lon="0.04961">
        <ele>656.8</ele>
        <time>2017-07-31T08:26:05Z</time>
      </trkpt>
      <trkpt lat="42.44713" lon="0.04958">
        <ele>657</ele>
        <time>2017-07-31T08:26:06Z</time>
      </trkpt>
      <trkpt lat="42.4471" lon="0.04955">
        <ele>657.2</ele>
        <time>2017-07-31T08:26:07Z</time>
      </trkpt>
      <trkpt lat="42.44707" lon="0.04952">
        <ele>657.4</ele>
        <time>2017-07-31T08:26:08Z</time>
      </trkpt>
      <trkpt lat="42.44703" lon="0.0495">
        <ele>657.6</ele>
        <time>2017-07-31T08:26:09Z</time>
      </trkpt>
      <trkpt lat="42.447" lon="0.04948">
        <ele>657.8</ele>
        <time>2017-07-31T08:26:10Z</time>
      </trkpt>
      <trkpt lat="42.44696" lon="0.04946">
        <ele>658</ele>
        <time>2017-07-31T08:26:11Z</time>
      </trkpt>
      <trkpt lat="42.44693" lon="0.04945">
        <ele>658.2</ele>
        <time>2017-07-31T08:26:12Z</time>
      </trkpt>
      <trkpt lat="42.44689" lon="0.04943">
        <ele>658.4</ele>
        <time>2017-07-31T08:26:13Z</time>
      </trkpt>
      <trkpt lat="42.44685" lon="0.04942">
        <ele>658.5</ele>
        <time>2017-07-31T08:26:14Z</time>
      </trkpt>
      <trkpt lat="42.44681" lon="0.0494">
        <ele>658.6</ele>
        <time>2017-07-31T08:26:15Z</time>
      </trkpt>
      <trkpt lat="42.44677" lon="0.04939">
        <ele>658.7</ele>
        <time>2017-07-31T08:26:16Z</time>
      </trkpt>
      <trkpt lat="42.44673" lon="0.04938">
        <ele>658.8</ele>
        <time>2017-07-31T08:26:17Z</time>
      </trkpt>
      <trkpt lat="42.44669" lon="0.04937">
        <ele>658.9</ele>
        <time>2017-07-31T08:26:18Z</time>
      </trkpt>
      <trkpt lat="42.44665" lon="0.04935">
        <ele>659.1</ele>
        <time>2017-07-31T08:26:19Z</time>
      </trkpt>
      <trkpt lat="42.44661" lon="0.04934">
        <ele>659.3</ele>
        <time>2017-07-31T08:26:20Z</time>
      </trkpt>
      <trkpt lat="42.44658" lon="0.04932">
        <ele>659.5</ele>
        <time>2017-07-31T08:26:21Z</time>
      </trkpt>
      <trkpt lat="42.44654" lon="0.04931">
        <ele>659.7</ele>
        <time>2017-07-31T08:26:22Z</time>
      </trkpt>
      <trkpt lat="42.4465" lon="0.04929">
        <ele>659.9</ele>
        <time>2017-07-31T08:26:23Z</time>
      </trkpt>
      <trkpt lat="42.44646" lon="0.04927">
        <ele>660.1</ele>
        <time>2017-07-31T08:26:24Z</time>
      </trkpt>
      <trkpt lat="42.44642" lon="0.04926">
        <ele>660.3</ele>
        <time>2017-07-31T08:26:25Z</time>
      </trkpt>
      <trkpt lat="42.44639" lon="0.04924">
        <ele>660.4</ele>
        <time>2017-07-31T08:26:26Z</time>
      </trkpt>
      <trkpt lat="42.44635" lon="0.04922">
        <ele>660.5</ele>
        <time>2017-07-31T08:26:27Z</time>
      </trkpt>
      <trkpt lat="42.44631" lon="0.0492">
        <ele>660.7</ele>
        <time>2017-07-31T08:26:28Z</time>
      </trkpt>
      <trkpt lat="42.44627" lon="0.04917">
        <ele>660.8</ele>
        <time>2017-07-31T08:26:29Z</time>
      </trkpt>
      <trkpt lat="42.44623" lon="0.04915">
        <ele>660.8</ele>
        <time>2017-07-31T08:26:30Z</time>
      </trkpt>
      <trkpt lat="42.4462" lon="0.04911">
        <ele>660.9</ele>
        <time>2017-07-31T08:26:31Z</time>
      </trkpt>
      <trkpt lat="42.44616" lon="0.04908">
        <ele>660.9</ele>
        <time>2017-07-31T08:26:32Z</time>
      </trkpt>
      <trkpt lat="42.44613" lon="0.04904">
        <ele>661</ele>
        <time>2017-07-31T08:26:33Z</time>
      </trkpt>
      <trkpt lat="42.4461" lon="0.04899">
        <ele>661</ele>
        <time>2017-07-31T08:26:34Z</time>
      </trkpt>
      <trkpt lat="42.44609" lon="0.04891">
        <ele>661.1</ele>
        <time>2017-07-31T08:26:35Z</time>
      </trkpt>
      <trkpt lat="42.44607" lon="0.04885">
        <ele>661.2</ele>
        <time>2017-07-31T08:26:36Z</time>
      </trkpt>
      <trkpt lat="42.44605" lon="0.04879">
        <ele>661.2</ele>
        <time>2017-07-31T08:26:37Z</time>
      </trkpt>
      <trkpt lat="42.44604" lon="0.04873">
        <ele>661.3</ele>
        <time>2017-07-31T08:26:38Z</time>
      </trkpt>
      <trkpt lat="42.44603" lon="0.04866">
        <ele>661.3</ele>
        <time>2017-07-31T08:26:39Z</time>
      </trkpt>
      <trkpt lat="42.44602" lon="0.04859">
        <ele>661.4</ele>
        <time>2017-07-31T08:26:40Z</time>
      </trkpt>
      <trkpt lat="42.44602" lon="0.04852">
        <ele>661.4</ele>
        <time>2017-07-31T08:26:41Z</time>
      </trkpt>
      <trkpt lat="42.44603" lon="0.04845">
        <ele>661.4</ele>
        <time>2017-07-31T08:26:42Z</time>
      </trkpt>
      <trkpt lat="42.44604" lon="0.04838">
        <ele>661.5</ele>
        <time>2017-07-31T08:26:43Z</time>
      </trkpt>
      <trkpt lat="42.44605" lon="0.04831">
        <ele>661.5</ele>
        <time>2017-07-31T08:26:44Z</time>
      </trkpt>
      <trkpt lat="42.44606" lon="0.04824">
        <ele>661.5</ele>
        <time>2017-07-31T08:26:45Z</time>
      </trkpt>
      <trkpt lat="42.44606" lon="0.04817">
        <ele>661.6</ele>
        <time>2017-07-31T08:26:46Z</time>
      </trkpt>
      <trkpt lat="42.44608" lon="0.04811">
        <ele>661.6</ele>
        <time>2017-07-31T08:26:47Z</time>
      </trkpt>
      <trkpt lat="42.4461" lon="0.04806">
        <ele>661.6</ele>
        <time>2017-07-31T08:26:48Z</time>
      </trkpt>
      <trkpt lat="42.4461" lon="0.048">
        <ele>661.7</ele>
        <time>2017-07-31T08:26:49Z</time>
      </trkpt>
      <trkpt lat="42.44612" lon="0.04794">
        <ele>661.7</ele>
        <time>2017-07-31T08:26:50Z</time>
      </trkpt>
      <trkpt lat="42.44612" lon="0.04788">
        <ele>661.7</ele>
        <time>2017-07-31T08:26:51Z</time>
      </trkpt>
      <trkpt lat="42.44613" lon="0.04782">
        <ele>661.7</ele>
        <time>2017-07-31T08:26:52Z</time>
      </trkpt>
      <trkpt lat="42.44614" lon="0.04776">
        <ele>661.8</ele>
        <time>2017-07-31T08:26:53Z</time>
      </trkpt>
      <trkpt lat="42.44615" lon="0.0477">
        <ele>661.8</ele>
        <time>2017-07-31T08:26:54Z</time>
      </trkpt>
      <trkpt lat="42.44617" lon="0.04763">
        <ele>661.8</ele>
        <time>2017-07-31T08:26:55Z</time>
      </trkpt>
      <trkpt lat="42.44617" lon="0.04756">
        <ele>661.8</ele>
        <time>2017-07-31T08:26:56Z</time>
      </trkpt>
      <trkpt lat="42.44618" lon="0.0475">
        <ele>661.9</ele>
        <time>2017-07-31T08:26:57Z</time>
      </trkpt>
      <trkpt lat="42.44618" lon="0.04744">
        <ele>661.9</ele>
        <time>2017-07-31T08:26:58Z</time>
      </trkpt>
      <trkpt lat="42.44619" lon="0.04738">
        <ele>661.9</ele>
        <time>2017-07-31T08:26:59Z</time>
      </trkpt>
      <trkpt lat="42.44619" lon="0.04732">
        <ele>661.9</ele>
        <time>2017-07-31T08:27:00Z</time>
      </trkpt>
      <trkpt lat="42.44618" lon="0.04726">
        <ele>662</ele>
        <time>2017-07-31T08:27:01Z</time>
      </trkpt>
      <trkpt lat="42.44617" lon="0.0472">
        <ele>662</ele>
        <time>2017-07-31T08:27:02Z</time>
      </trkpt>
      <trkpt lat="42.44616" lon="0.04714">
        <ele>662.3</ele>
        <time>2017-07-31T08:27:03Z</time>
      </trkpt>
      <trkpt lat="42.44613" lon="0.04709">
        <ele>662.7</ele>
        <time>2017-07-31T08:27:04Z</time>
      </trkpt>
      <trkpt lat="42.44611" lon="0.04704">
        <ele>663</ele>
        <time>2017-07-31T08:27:05Z</time>
      </trkpt>
      <trkpt lat="42.44607" lon="0.047">
        <ele>663.4</ele>
        <time>2017-07-31T08:27:06Z</time>
      </trkpt>
      <trkpt lat="42.44603" lon="0.04697">
        <ele>663.7</ele>
        <time>2017-07-31T08:27:07Z</time>
      </trkpt>
      <trkpt lat="42.446" lon="0.04694">
        <ele>664</ele>
        <time>2017-07-31T08:27:08Z</time>
      </trkpt>
      <trkpt lat="42.44596" lon="0.04692">
        <ele>664.3</ele>
        <time>2017-07-31T08:27:09Z</time>
      </trkpt>
      <trkpt lat="42.44592" lon="0.04691">
        <ele>664.6</ele>
        <time>2017-07-31T08:27:10Z</time>
      </trkpt>
      <trkpt lat="42.44587" lon="0.04689">
        <ele>665</ele>
        <time>2017-07-31T08:27:11Z</time>
      </trkpt>
      <trkpt lat="42.44583" lon="0.04688">
        <ele>665.3</ele>
        <time>2017-07-31T08:27:12Z</time>
      </trkpt>
      <trkpt lat="42.44578" lon="0.04687">
        <ele>665.6</ele>
        <time>2017-07-31T08:27:13Z</time>
      </trkpt>
      <trkpt lat="42.44574" lon="0.04685">
        <ele>665.9</ele>
        <time>2017-07-31T08:27:14Z</time>
      </trkpt>
      <trkpt lat="42.4457" lon="0.04685">
        <ele>666.2</ele>
        <time>2017-07-31T08:27:15Z</time>
      </trkpt>
      <trkpt lat="42.44565" lon="0.04683">
        <ele>666.3</ele>
        <time>2017-07-31T08:27:16Z</time>
      </trkpt>
      <trkpt lat="42.44561" lon="0.04683">
        <ele>666.5</ele>
        <time>2017-07-31T08:27:17Z</time>
      </trkpt>
      <trkpt lat="42.44556" lon="0.04682">
        <ele>666.7</ele>
        <time>2017-07-31T08:27:18Z</time>
      </trkpt>
      <trkpt lat="42.44552" lon="0.0468">
        <ele>666.9</ele>
        <time>2017-07-31T08:27:19Z</time>
      </trkpt>
      <trkpt lat="42.44548" lon="0.04679">
        <ele>667.1</ele>
        <time>2017-07-31T08:27:20Z</time>
      </trkpt>
      <trkpt lat="42.44543" lon="0.04678">
        <ele>667.3</ele>
        <time>2017-07-31T08:27:21Z</time>
      </trkpt>
      <trkpt lat="42.44539" lon="0.04676">
        <ele>667.6</ele>
        <time>2017-07-31T08:27:22Z</time>
      </trkpt>
      <trkpt lat="42.44534" lon="0.04675">
        <ele>667.8</ele>
        <time>2017-07-31T08:27:23Z</time>
      </trkpt>
      <trkpt lat="42.4453" lon="0.04674">
        <ele>668</ele>
        <time>2017-07-31T08:27:24Z</time>
      </trkpt>
      <trkpt lat="42.44526" lon="0.04673">
        <ele>668.2</ele>
        <time>2017-07-31T08:27:25Z</time>
      </trkpt>
      <trkpt lat="42.44522" lon="0.04672">
        <ele>668.4</ele>
        <time>2017-07-31T08:27:26Z</time>
      </trkpt>
      <trkpt lat="42.44517" lon="0.04671">
        <ele>668.7</ele>
        <time>2017-07-31T08:27:27Z</time>
      </trkpt>
      <trkpt lat="42.44513" lon="0.0467">
        <ele>668.9</ele>
        <time>2017-07-31T08:27:28Z</time>
      </trkpt>
      <trkpt lat="42.44509" lon="0.04669">
        <ele>669.2</ele>
        <time>2017-07-31T08:27:29Z</time>
      </trkpt>
      <trkpt lat="42.44505" lon="0.04667">
        <ele>669.4</ele>
        <time>2017-07-31T08:27:30Z</time>
      </trkpt>
      <trkpt lat="42.445" lon="0.04666">
        <ele>669.7</ele>
        <time>2017-07-31T08:27:31Z</time>
      </trkpt>
      <trkpt lat="42.44496" lon="0.04665">
        <ele>669.9</ele>
        <time>2017-07-31T08:27:32Z</time>
      </trkpt>
      <trkpt lat="42.44492" lon="0.04664">
        <ele>669.9</ele>
        <time>2017-07-31T08:27:33Z</time>
      </trkpt>
      <trkpt lat="42.44489" lon="0.04663">
        <ele>669.9</ele>
        <time>2017-07-31T08:27:34Z</time>
      </trkpt>
      <trkpt lat="42.44486" lon="0.04662">
        <ele>669.8</ele>
        <time>2017-07-31T08:27:35Z</time>
      </trkpt>
      <trkpt lat="42.44483" lon="0.04662">
        <ele>669.7</ele>
        <time>2017-07-31T08:27:36Z</time>
      </trkpt>
      <trkpt lat="42.4448" lon="0.04661">
        <ele>669.7</ele>
        <time>2017-07-31T08:27:37Z</time>
      </trkpt>
      <trkpt lat="42.44477" lon="0.04661">
        <ele>669.7</ele>
        <time>2017-07-31T08:27:38Z</time>
      </trkpt>
      <trkpt lat="42.44474" lon="0.0466">
        <ele>669.6</ele>
        <time>2017-07-31T08:27:39Z</time>
      </trkpt>
      <trkpt lat="42.44471" lon="0.0466">
        <ele>669.6</ele>
        <time>2017-07-31T08:27:40Z</time>
      </trkpt>
      <trkpt lat="42.44466" lon="0.04659">
        <ele>669.6</ele>
        <time>2017-07-31T08:27:42Z</time>
      </trkpt>
      <trkpt lat="42.44461" lon="0.04657">
        <ele>669.5</ele>
        <time>2017-07-31T08:27:44Z</time>
      </trkpt>
      <trkpt lat="42.44456" lon="0.04658">
        <ele>669.5</ele>
        <time>2017-07-31T08:27:46Z</time>
      </trkpt>
      <trkpt lat="42.44453" lon="0.04658">
        <ele>669.6</ele>
        <time>2017-07-31T08:27:47Z</time>
      </trkpt>
      <trkpt lat="42.4445" lon="0.04659">
        <ele>669.6</ele>
        <time>2017-07-31T08:27:48Z</time>
      </trkpt>
      <trkpt lat="42.44448" lon="0.04659">
        <ele>669.6</ele>
        <time>2017-07-31T08:27:49Z</time>
      </trkpt>
      <trkpt lat="42.44445" lon="0.04659">
        <ele>669.6</ele>
        <time>2017-07-31T08:27:50Z</time>
      </trkpt>
      <trkpt lat="42.44442" lon="0.0466">
        <ele>669.6</ele>
        <time>2017-07-31T08:27:51Z</time>
      </trkpt>
      <trkpt lat="42.44439" lon="0.0466">
        <ele>669.6</ele>
        <time>2017-07-31T08:27:52Z</time>
      </trkpt>
      <trkpt lat="42.44437" lon="0.04661">
        <ele>669.7</ele>
        <time>2017-07-31T08:27:53Z</time>
      </trkpt>
      <trkpt lat="42.44432" lon="0.04662">
        <ele>669.7</ele>
        <time>2017-07-31T08:27:55Z</time>
      </trkpt>
      <trkpt lat="42.44427" lon="0.04663">
        <ele>669.8</ele>
        <time>2017-07-31T08:27:57Z</time>
      </trkpt>
      <trkpt lat="42.44421" lon="0.04663">
        <ele>669.8</ele>
        <time>2017-07-31T08:27:59Z</time>
      </trkpt>
      <trkpt lat="42.44419" lon="0.04663">
        <ele>669.9</ele>
        <time>2017-07-31T08:28:00Z</time>
      </trkpt>
      <trkpt lat="42.44416" lon="0.04663">
        <ele>669.9</ele>
        <time>2017-07-31T08:28:01Z</time>
      </trkpt>
      <trkpt lat="42.4441" lon="0.04663">
        <ele>670</ele>
        <time>2017-07-31T08:28:03Z</time>
      </trkpt>
      <trkpt lat="42.44405" lon="0.04663">
        <ele>670.7</ele>
        <time>2017-07-31T08:28:05Z</time>
      </trkpt>
      <trkpt lat="42.444" lon="0.04663">
        <ele>671.4</ele>
        <time>2017-07-31T08:28:07Z</time>
      </trkpt>
      <trkpt lat="42.44395" lon="0.04662">
        <ele>672.1</ele>
        <time>2017-07-31T08:28:09Z</time>
      </trkpt>
      <trkpt lat="42.44391" lon="0.04661">
        <ele>672.7</ele>
        <time>2017-07-31T08:28:11Z</time>
      </trkpt>
      <trkpt lat="42.44386" lon="0.04659">
        <ele>673.3</ele>
        <time>2017-07-31T08:28:13Z</time>
      </trkpt>
      <trkpt lat="42.44382" lon="0.04656">
        <ele>673.9</ele>
        <time>2017-07-31T08:28:15Z</time>
      </trkpt>
      <trkpt lat="42.44377" lon="0.04653">
        <ele>674.5</ele>
        <time>2017-07-31T08:28:17Z</time>
      </trkpt>
      <trkpt lat="42.44373" lon="0.0465">
        <ele>675</ele>
        <time>2017-07-31T08:28:19Z</time>
      </trkpt>
      <trkpt lat="42.44369" lon="0.04648">
        <ele>675.5</ele>
        <time>2017-07-31T08:28:21Z</time>
      </trkpt>
      <trkpt lat="42.44364" lon="0.04646">
        <ele>676</ele>
        <time>2017-07-31T08:28:23Z</time>
      </trkpt>
      <trkpt lat="42.4436" lon="0.04644">
        <ele>676.5</ele>
        <time>2017-07-31T08:28:25Z</time>
      </trkpt>
      <trkpt lat="42.44356" lon="0.04642">
        <ele>677</ele>
        <time>2017-07-31T08:28:27Z</time>
      </trkpt>
      <trkpt lat="42.44352" lon="0.0464">
        <ele>677.5</ele>
        <time>2017-07-31T08:28:29Z</time>
      </trkpt>
      <trkpt lat="42.44347" lon="0.04637">
        <ele>677.9</ele>
        <time>2017-07-31T08:28:31Z</time>
      </trkpt>
      <trkpt lat="42.44343" lon="0.04636">
        <ele>678.5</ele>
        <time>2017-07-31T08:28:33Z</time>
      </trkpt>
      <trkpt lat="42.44338" lon="0.04636">
        <ele>679</ele>
        <time>2017-07-31T08:28:35Z</time>
      </trkpt>
      <trkpt lat="42.44333" lon="0.04635">
        <ele>679.5</ele>
        <time>2017-07-31T08:28:37Z</time>
      </trkpt>
      <trkpt lat="42.44329" lon="0.04635">
        <ele>680</ele>
        <time>2017-07-31T08:28:39Z</time>
      </trkpt>
      <trkpt lat="42.44324" lon="0.04634">
        <ele>680.5</ele>
        <time>2017-07-31T08:28:41Z</time>
      </trkpt>
      <trkpt lat="42.4432" lon="0.04632">
        <ele>681</ele>
        <time>2017-07-31T08:28:43Z</time>
      </trkpt>
      <trkpt lat="42.44315" lon="0.04631">
        <ele>681.5</ele>
        <time>2017-07-31T08:28:45Z</time>
      </trkpt>
      <trkpt lat="42.44311" lon="0.0463">
        <ele>682</ele>
        <time>2017-07-31T08:28:47Z</time>
      </trkpt>
      <trkpt lat="42.44307" lon="0.04629">
        <ele>682.4</ele>
        <time>2017-07-31T08:28:49Z</time>
      </trkpt>
      <trkpt lat="42.44302" lon="0.04627">
        <ele>682.9</ele>
        <time>2017-07-31T08:28:51Z</time>
      </trkpt>
      <trkpt lat="42.44298" lon="0.04625">
        <ele>683.4</ele>
        <time>2017-07-31T08:28:53Z</time>
      </trkpt>
      <trkpt lat="42.44294" lon="0.04623">
        <ele>683.8</ele>
        <time>2017-07-31T08:28:55Z</time>
      </trkpt>
      <trkpt lat="42.4429" lon="0.04622">
        <ele>684.2</ele>
        <time>2017-07-31T08:28:57Z</time>
      </trkpt>
      <trkpt lat="42.44285" lon="0.04621">
        <ele>684.7</ele>
        <time>2017-07-31T08:28:59Z</time>
      </trkpt>
      <trkpt lat="42.44281" lon="0.0462">
        <ele>685.1</ele>
        <time>2017-07-31T08:29:01Z</time>
      </trkpt>
      <trkpt lat="42.44277" lon="0.04619">
        <ele>685.5</ele>
        <time>2017-07-31T08:29:03Z</time>
      </trkpt>
      <trkpt lat="42.44272" lon="0.04619">
        <ele>686</ele>
        <time>2017-07-31T08:29:05Z</time>
      </trkpt>
      <trkpt lat="42.44268" lon="0.04618">
        <ele>686.4</ele>
        <time>2017-07-31T08:29:07Z</time>
      </trkpt>
      <trkpt lat="42.44264" lon="0.04616">
        <ele>686.8</ele>
        <time>2017-07-31T08:29:09Z</time>
      </trkpt>
      <trkpt lat="42.44259" lon="0.04614">
        <ele>687.2</ele>
        <time>2017-07-31T08:29:11Z</time>
      </trkpt>
      <trkpt lat="42.44255" lon="0.04612">
        <ele>687.7</ele>
        <time>2017-07-31T08:29:13Z</time>
      </trkpt>
      <trkpt lat="42.4425" lon="0.04611">
        <ele>688.2</ele>
        <time>2017-07-31T08:29:15Z</time>
      </trkpt>
      <trkpt lat="42.44246" lon="0.0461">
        <ele>688.6</ele>
        <time>2017-07-31T08:29:17Z</time>
      </trkpt>
      <trkpt lat="42.44241" lon="0.04608">
        <ele>689.1</ele>
        <time>2017-07-31T08:29:19Z</time>
      </trkpt>
      <trkpt lat="42.44237" lon="0.04606">
        <ele>689.6</ele>
        <time>2017-07-31T08:29:21Z</time>
      </trkpt>
      <trkpt lat="42.44232" lon="0.04605">
        <ele>690.2</ele>
        <time>2017-07-31T08:29:23Z</time>
      </trkpt>
      <trkpt lat="42.44227" lon="0.04604">
        <ele>690.7</ele>
        <time>2017-07-31T08:29:25Z</time>
      </trkpt>
      <trkpt lat="42.44222" lon="0.04602">
        <ele>691.2</ele>
        <time>2017-07-31T08:29:27Z</time>
      </trkpt>
      <trkpt lat="42.44218" lon="0.046">
        <ele>691.7</ele>
        <time>2017-07-31T08:29:29Z</time>
      </trkpt>
      <trkpt lat="42.44213" lon="0.04598">
        <ele>692.3</ele>
        <time>2017-07-31T08:29:31Z</time>
      </trkpt>
      <trkpt lat="42.44209" lon="0.04597">
        <ele>692.8</ele>
        <time>2017-07-31T08:29:33Z</time>
      </trkpt>
      <trkpt lat="42.44204" lon="0.04597">
        <ele>693.4</ele>
        <time>2017-07-31T08:29:35Z</time>
      </trkpt>
      <trkpt lat="42.44199" lon="0.04599">
        <ele>693.9</ele>
        <time>2017-07-31T08:29:37Z</time>
      </trkpt>
      <trkpt lat="42.44195" lon="0.04599">
        <ele>694.5</ele>
        <time>2017-07-31T08:29:39Z</time>
      </trkpt>
      <trkpt lat="42.4419" lon="0.04601">
        <ele>695</ele>
        <time>2017-07-31T08:29:41Z</time>
      </trkpt>
      <trkpt lat="42.44186" lon="0.04604">
        <ele>695.6</ele>
        <time>2017-07-31T08:29:43Z</time>
      </trkpt>
      <trkpt lat="42.44182" lon="0.04607">
        <ele>696.1</ele>
        <time>2017-07-31T08:29:45Z</time>
      </trkpt>
      <trkpt lat="42.44177" lon="0.0461">
        <ele>696.7</ele>
        <time>2017-07-31T08:29:47Z</time>
      </trkpt>
      <trkpt lat="42.44173" lon="0.04613">
        <ele>697.2</ele>
        <time>2017-07-31T08:29:49Z</time>
      </trkpt>
      <trkpt lat="42.44169" lon="0.04616">
        <ele>697.8</ele>
        <time>2017-07-31T08:29:51Z</time>
      </trkpt>
      <trkpt lat="42.44164" lon="0.04619">
        <ele>698.3</ele>
        <time>2017-07-31T08:29:53Z</time>
      </trkpt>
      <trkpt lat="42.4416" lon="0.04622">
        <ele>698.8</ele>
        <time>2017-07-31T08:29:55Z</time>
      </trkpt>
      <trkpt lat="42.44156" lon="0.04624">
        <ele>699.3</ele>
        <time>2017-07-31T08:29:57Z</time>
      </trkpt>
      <trkpt lat="42.44151" lon="0.04626">
        <ele>699.9</ele>
        <time>2017-07-31T08:29:59Z</time>
      </trkpt>
      <trkpt lat="42.44147" lon="0.04627">
        <ele>700.4</ele>
        <time>2017-07-31T08:30:01Z</time>
      </trkpt>
      <trkpt lat="42.44142" lon="0.04629">
        <ele>701</ele>
        <time>2017-07-31T08:30:03Z</time>
      </trkpt>
      <trkpt lat="42.44138" lon="0.04628">
        <ele>701.5</ele>
        <time>2017-07-31T08:30:05Z</time>
      </trkpt>
      <trkpt lat="42.44133" lon="0.04627">
        <ele>702.1</ele>
        <time>2017-07-31T08:30:07Z</time>
      </trkpt>
      <trkpt lat="42.44129" lon="0.04626">
        <ele>702.7</ele>
        <time>2017-07-31T08:30:09Z</time>
      </trkpt>
      <trkpt lat="42.44124" lon="0.04624">
        <ele>703.3</ele>
        <time>2017-07-31T08:30:11Z</time>
      </trkpt>
      <trkpt lat="42.4412" lon="0.04622">
        <ele>703.8</ele>
        <time>2017-07-31T08:30:13Z</time>
      </trkpt>
      <trkpt lat="42.44116" lon="0.04621">
        <ele>704.4</ele>
        <time>2017-07-31T08:30:15Z</time>
      </trkpt>
      <trkpt lat="42.44112" lon="0.04619">
        <ele>704.9</ele>
        <time>2017-07-31T08:30:17Z</time>
      </trkpt>
      <trkpt lat="42.44108" lon="0.04617">
        <ele>705.4</ele>
        <time>2017-07-31T08:30:19Z</time>
      </trkpt>
      <trkpt lat="42.44104" lon="0.04614">
        <ele>705.9</ele>
        <time>2017-07-31T08:30:21Z</time>
      </trkpt>
      <trkpt lat="42.441" lon="0.04612">
        <ele>706.4</ele>
        <time>2017-07-31T08:30:23Z</time>
      </trkpt>
      <trkpt lat="42.44095" lon="0.04611">
        <ele>706.9</ele>
        <time>2017-07-31T08:30:25Z</time>
      </trkpt>
      <trkpt lat="42.44091" lon="0.04609">
        <ele>707.4</ele>
        <time>2017-07-31T08:30:27Z</time>
      </trkpt>
      <trkpt lat="42.44087" lon="0.04607">
        <ele>707.8</ele>
        <time>2017-07-31T08:30:29Z</time>
      </trkpt>
      <trkpt lat="42.44083" lon="0.04605">
        <ele>712.3</ele>
        <time>2017-07-31T08:30:31Z</time>
      </trkpt>
      <trkpt lat="42.44079" lon="0.04603">
        <ele>719.4</ele>
        <time>2017-07-31T08:30:33Z</time>
      </trkpt>
      <trkpt lat="42.44076" lon="0.04602">
        <ele>727</ele>
        <time>2017-07-31T08:30:35Z</time>
      </trkpt>
      <trkpt lat="42.44072" lon="0.046">
        <ele>731.9</ele>
        <time>2017-07-31T08:30:37Z</time>
      </trkpt>
      <trkpt lat="42.44068" lon="0.04598">
        <ele>731.5</ele>
        <time>2017-07-31T08:30:39Z</time>
      </trkpt>
      <trkpt lat="42.44064" lon="0.04597">
        <ele>731</ele>
        <time>2017-07-31T08:30:41Z</time>
      </trkpt>
      <trkpt lat="42.4406" lon="0.04596">
        <ele>730.6</ele>
        <time>2017-07-31T08:30:43Z</time>
      </trkpt>
      <trkpt lat="42.44056" lon="0.04594">
        <ele>730.2</ele>
        <time>2017-07-31T08:30:45Z</time>
      </trkpt>
      <trkpt lat="42.44052" lon="0.04592">
        <ele>729.8</ele>
        <time>2017-07-31T08:30:47Z</time>
      </trkpt>
      <trkpt lat="42.44048" lon="0.04591">
        <ele>729.5</ele>
        <time>2017-07-31T08:30:49Z</time>
      </trkpt>
      <trkpt lat="42.44045" lon="0.04588">
        <ele>729.1</ele>
        <time>2017-07-31T08:30:51Z</time>
      </trkpt>
      <trkpt lat="42.44041" lon="0.04586">
        <ele>728.8</ele>
        <time>2017-07-31T08:30:53Z</time>
      </trkpt>
      <trkpt lat="42.44037" lon="0.04584">
        <ele>728.4</ele>
        <time>2017-07-31T08:30:55Z</time>
      </trkpt>
      <trkpt lat="42.44033" lon="0.04582">
        <ele>728.1</ele>
        <time>2017-07-31T08:30:57Z</time>
      </trkpt>
      <trkpt lat="42.4403" lon="0.0458">
        <ele>727.8</ele>
        <time>2017-07-31T08:30:59Z</time>
      </trkpt>
      <trkpt lat="42.44026" lon="0.04577">
        <ele>727.5</ele>
        <time>2017-07-31T08:31:01Z</time>
      </trkpt>
      <trkpt lat="42.44022" lon="0.04574">
        <ele>727.1</ele>
        <time>2017-07-31T08:31:03Z</time>
      </trkpt>
      <trkpt lat="42.44019" lon="0.0457">
        <ele>726.7</ele>
        <time>2017-07-31T08:31:05Z</time>
      </trkpt>
      <trkpt lat="42.44017" lon="0.04566">
        <ele>726.4</ele>
        <time>2017-07-31T08:31:07Z</time>
      </trkpt>
      <trkpt lat="42.44015" lon="0.04561">
        <ele>726</ele>
        <time>2017-07-31T08:31:09Z</time>
      </trkpt>
      <trkpt lat="42.44012" lon="0.04556">
        <ele>725.6</ele>
        <time>2017-07-31T08:31:11Z</time>
      </trkpt>
      <trkpt lat="42.4401" lon="0.04551">
        <ele>725.2</ele>
        <time>2017-07-31T08:31:13Z</time>
      </trkpt>
      <trkpt lat="42.44009" lon="0.04544">
        <ele>724.7</ele>
        <time>2017-07-31T08:31:15Z</time>
      </trkpt>
      <trkpt lat="42.44009" lon="0.04537">
        <ele>724.3</ele>
        <time>2017-07-31T08:31:17Z</time>
      </trkpt>
      <trkpt lat="42.4401" lon="0.0453">
        <ele>724</ele>
        <time>2017-07-31T08:31:19Z</time>
      </trkpt>
      <trkpt lat="42.44011" lon="0.04524">
        <ele>724</ele>
        <time>2017-07-31T08:31:21Z</time>
      </trkpt>
      <trkpt lat="42.44013" lon="0.04517">
        <ele>724.1</ele>
        <time>2017-07-31T08:31:23Z</time>
      </trkpt>
      <trkpt lat="42.44016" lon="0.04512">
        <ele>725</ele>
        <time>2017-07-31T08:31:25Z</time>
      </trkpt>
      <trkpt lat="42.44021" lon="0.04509">
        <ele>726</ele>
        <time>2017-07-31T08:31:27Z</time>
      </trkpt>
      <trkpt lat="42.44026" lon="0.04507">
        <ele>726.9</ele>
        <time>2017-07-31T08:31:29Z</time>
      </trkpt>
      <trkpt lat="42.44031" lon="0.04506">
        <ele>727.8</ele>
        <time>2017-07-31T08:31:31Z</time>
      </trkpt>
      <trkpt lat="42.44036" lon="0.04506">
        <ele>728.7</ele>
        <time>2017-07-31T08:31:33Z</time>
      </trkpt>
      <trkpt lat="42.44041" lon="0.04507">
        <ele>729.6</ele>
        <time>2017-07-31T08:31:35Z</time>
      </trkpt>
      <trkpt lat="42.44045" lon="0.04509">
        <ele>730.5</ele>
        <time>2017-07-31T08:31:37Z</time>
      </trkpt>
      <trkpt lat="42.4405" lon="0.04512">
        <ele>731.4</ele>
        <time>2017-07-31T08:31:39Z</time>
      </trkpt>
      <trkpt lat="42.44054" lon="0.04515">
        <ele>732.3</ele>
        <time>2017-07-31T08:31:41Z</time>
      </trkpt>
      <trkpt lat="42.44059" lon="0.04517">
        <ele>733.1</ele>
        <time>2017-07-31T08:31:43Z</time>
      </trkpt>
      <trkpt lat="42.44063" lon="0.0452">
        <ele>733.8</ele>
        <time>2017-07-31T08:31:45Z</time>
      </trkpt>
      <trkpt lat="42.44068" lon="0.04522">
        <ele>734.5</ele>
        <time>2017-07-31T08:31:47Z</time>
      </trkpt>
      <trkpt lat="42.44072" lon="0.04523">
        <ele>735.2</ele>
        <time>2017-07-31T08:31:49Z</time>
      </trkpt>
      <trkpt lat="42.44077" lon="0.04524">
        <ele>735.9</ele>
        <time>2017-07-31T08:31:51Z</time>
      </trkpt>
      <trkpt lat="42.44081" lon="0.04525">
        <ele>736.5</ele>
        <time>2017-07-31T08:31:53Z</time>
      </trkpt>
      <trkpt lat="42.44085" lon="0.04525">
        <ele>737.1</ele>
        <time>2017-07-31T08:31:55Z</time>
      </trkpt>
      <trkpt lat="42.4409" lon="0.04525">
        <ele>737.6</ele>
        <time>2017-07-31T08:31:57Z</time>
      </trkpt>
      <trkpt lat="42.44094" lon="0.04524">
        <ele>738.2</ele>
        <time>2017-07-31T08:31:59Z</time>
      </trkpt>
      <trkpt lat="42.44098" lon="0.04522">
        <ele>738.7</ele>
        <time>2017-07-31T08:32:01Z</time>
      </trkpt>
      <trkpt lat="42.44102" lon="0.04521">
        <ele>739.2</ele>
        <time>2017-07-31T08:32:03Z</time>
      </trkpt>
      <trkpt lat="42.44106" lon="0.04519">
        <ele>739.7</ele>
        <time>2017-07-31T08:32:05Z</time>
      </trkpt>
      <trkpt lat="42.44111" lon="0.04518">
        <ele>740.1</ele>
        <time>2017-07-31T08:32:07Z</time>
      </trkpt>
      <trkpt lat="42.44115" lon="0.04517">
        <ele>740.6</ele>
        <time>2017-07-31T08:32:09Z</time>
      </trkpt>
      <trkpt lat="42.44119" lon="0.04516">
        <ele>741.1</ele>
        <time>2017-07-31T08:32:11Z</time>
      </trkpt>
      <trkpt lat="42.44123" lon="0.04514">
        <ele>741.5</ele>
        <time>2017-07-31T08:32:13Z</time>
      </trkpt>
      <trkpt lat="42.44127" lon="0.04514">
        <ele>741.9</ele>
        <time>2017-07-31T08:32:15Z</time>
      </trkpt>
      <trkpt lat="42.44132" lon="0.04513">
        <ele>742.3</ele>
        <time>2017-07-31T08:32:17Z</time>
      </trkpt>
      <trkpt lat="42.44136" lon="0.04511">
        <ele>742.7</ele>
        <time>2017-07-31T08:32:19Z</time>
      </trkpt>
      <trkpt lat="42.4414" lon="0.04509">
        <ele>743.2</ele>
        <time>2017-07-31T08:32:21Z</time>
      </trkpt>
      <trkpt lat="42.44145" lon="0.04509">
        <ele>743.6</ele>
        <time>2017-07-31T08:32:23Z</time>
      </trkpt>
      <trkpt lat="42.4415" lon="0.04508">
        <ele>744</ele>
        <time>2017-07-31T08:32:25Z</time>
      </trkpt>
      <trkpt lat="42.44154" lon="0.04506">
        <ele>744.4</ele>
        <time>2017-07-31T08:32:27Z</time>
      </trkpt>
      <trkpt lat="42.44159" lon="0.04505">
        <ele>744.8</ele>
        <time>2017-07-31T08:32:29Z</time>
      </trkpt>
      <trkpt lat="42.44163" lon="0.04503">
        <ele>745.2</ele>
        <time>2017-07-31T08:32:31Z</time>
      </trkpt>
      <trkpt lat="42.44168" lon="0.04502">
        <ele>745.6</ele>
        <time>2017-07-31T08:32:33Z</time>
      </trkpt>
      <trkpt lat="42.44173" lon="0.04501">
        <ele>746.1</ele>
        <time>2017-07-31T08:32:35Z</time>
      </trkpt>
      <trkpt lat="42.44178" lon="0.04499">
        <ele>746.5</ele>
        <time>2017-07-31T08:32:37Z</time>
      </trkpt>
      <trkpt lat="42.44183" lon="0.04497">
        <ele>747</ele>
        <time>2017-07-31T08:32:39Z</time>
      </trkpt>
      <trkpt lat="42.44188" lon="0.04496">
        <ele>747.5</ele>
        <time>2017-07-31T08:32:41Z</time>
      </trkpt>
      <trkpt lat="42.44192" lon="0.04494">
        <ele>748</ele>
        <time>2017-07-31T08:32:43Z</time>
      </trkpt>
      <trkpt lat="42.44197" lon="0.04492">
        <ele>748.4</ele>
        <time>2017-07-31T08:32:45Z</time>
      </trkpt>
      <trkpt lat="42.44201" lon="0.04491">
        <ele>748.9</ele>
        <time>2017-07-31T08:32:47Z</time>
      </trkpt>
      <trkpt lat="42.44206" lon="0.0449">
        <ele>749.3</ele>
        <time>2017-07-31T08:32:49Z</time>
      </trkpt>
      <trkpt lat="42.4421" lon="0.04488">
        <ele>749.8</ele>
        <time>2017-07-31T08:32:51Z</time>
      </trkpt>
      <trkpt lat="42.44215" lon="0.04486">
        <ele>750.2</ele>
        <time>2017-07-31T08:32:53Z</time>
      </trkpt>
      <trkpt lat="42.44219" lon="0.04485">
        <ele>750.6</ele>
        <time>2017-07-31T08:32:55Z</time>
      </trkpt>
      <trkpt lat="42.44223" lon="0.04483">
        <ele>751</ele>
        <time>2017-07-31T08:32:57Z</time>
      </trkpt>
      <trkpt lat="42.44227" lon="0.04482">
        <ele>751.4</ele>
        <time>2017-07-31T08:32:59Z</time>
      </trkpt>
      <trkpt lat="42.44231" lon="0.04481">
        <ele>751.8</ele>
        <time>2017-07-31T08:33:01Z</time>
      </trkpt>
      <trkpt lat="42.44236" lon="0.0448">
        <ele>752.2</ele>
        <time>2017-07-31T08:33:03Z</time>
      </trkpt>
      <trkpt lat="42.44241" lon="0.04479">
        <ele>752.5</ele>
        <time>2017-07-31T08:33:05Z</time>
      </trkpt>
      <trkpt lat="42.44245" lon="0.04478">
        <ele>752.9</ele>
        <time>2017-07-31T08:33:07Z</time>
      </trkpt>
      <trkpt lat="42.4425" lon="0.04478">
        <ele>753.3</ele>
        <time>2017-07-31T08:33:09Z</time>
      </trkpt>
      <trkpt lat="42.44255" lon="0.04477">
        <ele>753.7</ele>
        <time>2017-07-31T08:33:11Z</time>
      </trkpt>
      <trkpt lat="42.44259" lon="0.04478">
        <ele>754</ele>
        <time>2017-07-31T08:33:13Z</time>
      </trkpt>
      <trkpt lat="42.44264" lon="0.04478">
        <ele>754.4</ele>
        <time>2017-07-31T08:33:15Z</time>
      </trkpt>
      <trkpt lat="42.44269" lon="0.04478">
        <ele>754.8</ele>
        <time>2017-07-31T08:33:17Z</time>
      </trkpt>
      <trkpt lat="42.44273" lon="0.04478">
        <ele>755.1</ele>
        <time>2017-07-31T08:33:19Z</time>
      </trkpt>
      <trkpt lat="42.44278" lon="0.04479">
        <ele>755.5</ele>
        <time>2017-07-31T08:33:21Z</time>
      </trkpt>
      <trkpt lat="42.44282" lon="0.0448">
        <ele>755.9</ele>
        <time>2017-07-31T08:33:23Z</time>
      </trkpt>
      <trkpt lat="42.44287" lon="0.0448">
        <ele>756.2</ele>
        <time>2017-07-31T08:33:25Z</time>
      </trkpt>
      <trkpt lat="42.44291" lon="0.04481">
        <ele>756.5</ele>
        <time>2017-07-31T08:33:27Z</time>
      </trkpt>
      <trkpt lat="42.44295" lon="0.04481">
        <ele>756.9</ele>
        <time>2017-07-31T08:33:29Z</time>
      </trkpt>
      <trkpt lat="42.44299" lon="0.04482">
        <ele>757.2</ele>
        <time>2017-07-31T08:33:31Z</time>
      </trkpt>
      <trkpt lat="42.44304" lon="0.04481">
        <ele>757.6</ele>
        <time>2017-07-31T08:33:33Z</time>
      </trkpt>
      <trkpt lat="42.44308" lon="0.04481">
        <ele>757.9</ele>
        <time>2017-07-31T08:33:35Z</time>
      </trkpt>
      <trkpt lat="42.44313" lon="0.0448">
        <ele>758</ele>
        <time>2017-07-31T08:33:37Z</time>
      </trkpt>
      <trkpt lat="42.44318" lon="0.04479">
        <ele>758.1</ele>
        <time>2017-07-31T08:33:39Z</time>
      </trkpt>
      <trkpt lat="42.44323" lon="0.04478">
        <ele>758.1</ele>
        <time>2017-07-31T08:33:41Z</time>
      </trkpt>
      <trkpt lat="42.44327" lon="0.04477">
        <ele>758.2</ele>
        <time>2017-07-31T08:33:43Z</time>
      </trkpt>
      <trkpt lat="42.44332" lon="0.04476">
        <ele>758.2</ele>
        <time>2017-07-31T08:33:45Z</time>
      </trkpt>
      <trkpt lat="42.44336" lon="0.04475">
        <ele>758.3</ele>
        <time>2017-07-31T08:33:47Z</time>
      </trkpt>
      <trkpt lat="42.44341" lon="0.04474">
        <ele>758.3</ele>
        <time>2017-07-31T08:33:49Z</time>
      </trkpt>
      <trkpt lat="42.44346" lon="0.04474">
        <ele>758.4</ele>
        <time>2017-07-31T08:33:51Z</time>
      </trkpt>
      <trkpt lat="42.4435" lon="0.04473">
        <ele>758.5</ele>
        <time>2017-07-31T08:33:53Z</time>
      </trkpt>
      <trkpt lat="42.44354" lon="0.04472">
        <ele>758.5</ele>
        <time>2017-07-31T08:33:55Z</time>
      </trkpt>
      <trkpt lat="42.44359" lon="0.04471">
        <ele>758.6</ele>
        <time>2017-07-31T08:33:57Z</time>
      </trkpt>
      <trkpt lat="42.44363" lon="0.0447">
        <ele>758.7</ele>
        <time>2017-07-31T08:33:59Z</time>
      </trkpt>
      <trkpt lat="42.44368" lon="0.04469">
        <ele>758.7</ele>
        <time>2017-07-31T08:34:01Z</time>
      </trkpt>
      <trkpt lat="42.44372" lon="0.04469">
        <ele>758.8</ele>
        <time>2017-07-31T08:34:03Z</time>
      </trkpt>
      <trkpt lat="42.44376" lon="0.04468">
        <ele>758.8</ele>
        <time>2017-07-31T08:34:05Z</time>
      </trkpt>
      <trkpt lat="42.4438" lon="0.04467">
        <ele>758.9</ele>
        <time>2017-07-31T08:34:07Z</time>
      </trkpt>
      <trkpt lat="42.44385" lon="0.04468">
        <ele>758.9</ele>
        <time>2017-07-31T08:34:09Z</time>
      </trkpt>
      <trkpt lat="42.44389" lon="0.04468">
        <ele>759</ele>
        <time>2017-07-31T08:34:11Z</time>
      </trkpt>
      <trkpt lat="42.44394" lon="0.04468">
        <ele>759.1</ele>
        <time>2017-07-31T08:34:13Z</time>
      </trkpt>
      <trkpt lat="42.44399" lon="0.04468">
        <ele>759.1</ele>
        <time>2017-07-31T08:34:15Z</time>
      </trkpt>
      <trkpt lat="42.44404" lon="0.04468">
        <ele>759.2</ele>
        <time>2017-07-31T08:34:17Z</time>
      </trkpt>
      <trkpt lat="42.44409" lon="0.04469">
        <ele>759.3</ele>
        <time>2017-07-31T08:34:19Z</time>
      </trkpt>
      <trkpt lat="42.44414" lon="0.04469">
        <ele>759.4</ele>
        <time>2017-07-31T08:34:21Z</time>
      </trkpt>
      <trkpt lat="42.44419" lon="0.04469">
        <ele>759.4</ele>
        <time>2017-07-31T08:34:23Z</time>
      </trkpt>
      <trkpt lat="42.44424" lon="0.04468">
        <ele>759.5</ele>
        <time>2017-07-31T08:34:25Z</time>
      </trkpt>
      <trkpt lat="42.44429" lon="0.04467">
        <ele>759.6</ele>
        <time>2017-07-31T08:34:27Z</time>
      </trkpt>
      <trkpt lat="42.44433" lon="0.04466">
        <ele>759.7</ele>
        <time>2017-07-31T08:34:29Z</time>
      </trkpt>
      <trkpt lat="42.44438" lon="0.04463">
        <ele>759.8</ele>
        <time>2017-07-31T08:34:31Z</time>
      </trkpt>
      <trkpt lat="42.44442" lon="0.04459">
        <ele>759.9</ele>
        <time>2017-07-31T08:34:33Z</time>
      </trkpt>
      <trkpt lat="42.44446" lon="0.04455">
        <ele>759.9</ele>
        <time>2017-07-31T08:34:35Z</time>
      </trkpt>
      <trkpt lat="42.44449" lon="0.0445">
        <ele>760</ele>
        <time>2017-07-31T08:34:37Z</time>
      </trkpt>
      <trkpt lat="42.44452" lon="0.04444">
        <ele>761.8</ele>
        <time>2017-07-31T08:34:39Z</time>
      </trkpt>
      <trkpt lat="42.44453" lon="0.04437">
        <ele>763.6</ele>
        <time>2017-07-31T08:34:41Z</time>
      </trkpt>
      <trkpt lat="42.44453" lon="0.0443">
        <ele>765.8</ele>
        <time>2017-07-31T08:34:43Z</time>
      </trkpt>
      <trkpt lat="42.44453" lon="0.04424">
        <ele>768</ele>
        <time>2017-07-31T08:34:45Z</time>
      </trkpt>
      <trkpt lat="42.44451" lon="0.04417">
        <ele>770.1</ele>
        <time>2017-07-31T08:34:47Z</time>
      </trkpt>
      <trkpt lat="42.44449" lon="0.04411">
        <ele>772</ele>
        <time>2017-07-31T08:34:49Z</time>
      </trkpt>
      <trkpt lat="42.44446" lon="0.04406">
        <ele>774</ele>
        <time>2017-07-31T08:34:51Z</time>
      </trkpt>
      <trkpt lat="42.44444" lon="0.04403">
        <ele>775</ele>
        <time>2017-07-31T08:34:52Z</time>
      </trkpt>
      <trkpt lat="42.44442" lon="0.04401">
        <ele>776</ele>
        <time>2017-07-31T08:34:53Z</time>
      </trkpt>
      <trkpt lat="42.44438" lon="0.04396">
        <ele>777.9</ele>
        <time>2017-07-31T08:34:55Z</time>
      </trkpt>
      <trkpt lat="42.44433" lon="0.04393">
        <ele>779.8</ele>
        <time>2017-07-31T08:34:57Z</time>
      </trkpt>
      <trkpt lat="42.44429" lon="0.04392">
        <ele>781.5</ele>
        <time>2017-07-31T08:34:59Z</time>
      </trkpt>
      <trkpt lat="42.44423" lon="0.04392">
        <ele>783.4</ele>
        <time>2017-07-31T08:35:01Z</time>
      </trkpt>
      <trkpt lat="42.4442" lon="0.04392">
        <ele>784.6</ele>
        <time>2017-07-31T08:35:02Z</time>
      </trkpt>
      <trkpt lat="42.44417" lon="0.04393">
        <ele>785.8</ele>
        <time>2017-07-31T08:35:03Z</time>
      </trkpt>
      <trkpt lat="42.44414" lon="0.04394">
        <ele>787.2</ele>
        <time>2017-07-31T08:35:04Z</time>
      </trkpt>
      <trkpt lat="42.4441" lon="0.04396">
        <ele>788</ele>
        <time>2017-07-31T08:35:05Z</time>
      </trkpt>
      <trkpt lat="42.44408" lon="0.04398">
        <ele>788</ele>
        <time>2017-07-31T08:35:06Z</time>
      </trkpt>
      <trkpt lat="42.44405" lon="0.044">
        <ele>788</ele>
        <time>2017-07-31T08:35:07Z</time>
      </trkpt>
      <trkpt lat="42.44403" lon="0.04402">
        <ele>787.4</ele>
        <time>2017-07-31T08:35:08Z</time>
      </trkpt>
      <trkpt lat="42.444" lon="0.04404">
        <ele>785.6</ele>
        <time>2017-07-31T08:35:09Z</time>
      </trkpt>
      <trkpt lat="42.44396" lon="0.04408">
        <ele>782.4</ele>
        <time>2017-07-31T08:35:11Z</time>
      </trkpt>
      <trkpt lat="42.44392" lon="0.04412">
        <ele>780.2</ele>
        <time>2017-07-31T08:35:13Z</time>
      </trkpt>
      <trkpt lat="42.44389" lon="0.04416">
        <ele>778</ele>
        <time>2017-07-31T08:35:15Z</time>
      </trkpt>
      <trkpt lat="42.44384" lon="0.04419">
        <ele>775.9</ele>
        <time>2017-07-31T08:35:17Z</time>
      </trkpt>
      <trkpt lat="42.44379" lon="0.04422">
        <ele>773.5</ele>
        <time>2017-07-31T08:35:19Z</time>
      </trkpt>
      <trkpt lat="42.44374" lon="0.04423">
        <ele>771.4</ele>
        <time>2017-07-31T08:35:21Z</time>
      </trkpt>
      <trkpt lat="42.44369" lon="0.04424">
        <ele>769.7</ele>
        <time>2017-07-31T08:35:23Z</time>
      </trkpt>
      <trkpt lat="42.44364" lon="0.04425">
        <ele>767.9</ele>
        <time>2017-07-31T08:35:25Z</time>
      </trkpt>
      <trkpt lat="42.4436" lon="0.04424">
        <ele>766.1</ele>
        <time>2017-07-31T08:35:27Z</time>
      </trkpt>
      <trkpt lat="42.44355" lon="0.04422">
        <ele>764.1</ele>
        <time>2017-07-31T08:35:29Z</time>
      </trkpt>
      <trkpt lat="42.4435" lon="0.0442">
        <ele>763.1</ele>
        <time>2017-07-31T08:35:31Z</time>
      </trkpt>
      <trkpt lat="42.44345" lon="0.04419">
        <ele>763.7</ele>
        <time>2017-07-31T08:35:33Z</time>
      </trkpt>
      <trkpt lat="42.44341" lon="0.04419">
        <ele>764.2</ele>
        <time>2017-07-31T08:35:35Z</time>
      </trkpt>
      <trkpt lat="42.44336" lon="0.04418">
        <ele>764.7</ele>
        <time>2017-07-31T08:35:37Z</time>
      </trkpt>
      <trkpt lat="42.44332" lon="0.04416">
        <ele>765.1</ele>
        <time>2017-07-31T08:35:39Z</time>
      </trkpt>
      <trkpt lat="42.44328" lon="0.04415">
        <ele>765.6</ele>
        <time>2017-07-31T08:35:41Z</time>
      </trkpt>
      <trkpt lat="42.44323" lon="0.04412">
        <ele>766</ele>
        <time>2017-07-31T08:35:43Z</time>
      </trkpt>
      <trkpt lat="42.44319" lon="0.04411">
        <ele>766.4</ele>
        <time>2017-07-31T08:35:45Z</time>
      </trkpt>
      <trkpt lat="42.44315" lon="0.0441">
        <ele>766.8</ele>
        <time>2017-07-31T08:35:47Z</time>
      </trkpt>
      <trkpt lat="42.4431" lon="0.04408">
        <ele>767.2</ele>
        <time>2017-07-31T08:35:49Z</time>
      </trkpt>
      <trkpt lat="42.44306" lon="0.04407">
        <ele>767.6</ele>
        <time>2017-07-31T08:35:51Z</time>
      </trkpt>
      <trkpt lat="42.44301" lon="0.04405">
        <ele>767.9</ele>
        <time>2017-07-31T08:35:53Z</time>
      </trkpt>
      <trkpt lat="42.44297" lon="0.04403">
        <ele>768.3</ele>
        <time>2017-07-31T08:35:55Z</time>
      </trkpt>
      <trkpt lat="42.44292" lon="0.04402">
        <ele>768.7</ele>
        <time>2017-07-31T08:35:57Z</time>
      </trkpt>
      <trkpt lat="42.44288" lon="0.04401">
        <ele>769</ele>
        <time>2017-07-31T08:35:59Z</time>
      </trkpt>
      <trkpt lat="42.44283" lon="0.044">
        <ele>769.4</ele>
        <time>2017-07-31T08:36:01Z</time>
      </trkpt>
      <trkpt lat="42.44278" lon="0.04398">
        <ele>769.8</ele>
        <time>2017-07-31T08:36:03Z</time>
      </trkpt>
      <trkpt lat="42.44274" lon="0.04397">
        <ele>770.1</ele>
        <time>2017-07-31T08:36:05Z</time>
      </trkpt>
      <trkpt lat="42.44269" lon="0.04395">
        <ele>770.4</ele>
        <time>2017-07-31T08:36:07Z</time>
      </trkpt>
      <trkpt lat="42.44265" lon="0.04394">
        <ele>770.8</ele>
        <time>2017-07-31T08:36:09Z</time>
      </trkpt>
      <trkpt lat="42.4426" lon="0.04392">
        <ele>771.1</ele>
        <time>2017-07-31T08:36:11Z</time>
      </trkpt>
      <trkpt lat="42.44256" lon="0.04391">
        <ele>771.4</ele>
        <time>2017-07-31T08:36:13Z</time>
      </trkpt>
      <trkpt lat="42.44251" lon="0.04389">
        <ele>771.7</ele>
        <time>2017-07-31T08:36:15Z</time>
      </trkpt>
      <trkpt lat="42.44247" lon="0.04388">
        <ele>772.1</ele>
        <time>2017-07-31T08:36:17Z</time>
      </trkpt>
      <trkpt lat="42.44242" lon="0.04387">
        <ele>772.4</ele>
        <time>2017-07-31T08:36:19Z</time>
      </trkpt>
      <trkpt lat="42.44238" lon="0.04386">
        <ele>772.7</ele>
        <time>2017-07-31T08:36:21Z</time>
      </trkpt>
      <trkpt lat="42.44233" lon="0.04384">
        <ele>773</ele>
        <time>2017-07-31T08:36:23Z</time>
      </trkpt>
      <trkpt lat="42.44229" lon="0.04382">
        <ele>773.4</ele>
        <time>2017-07-31T08:36:25Z</time>
      </trkpt>
      <trkpt lat="42.44224" lon="0.04381">
        <ele>773.7</ele>
        <time>2017-07-31T08:36:27Z</time>
      </trkpt>
      <trkpt lat="42.4422" lon="0.0438">
        <ele>774</ele>
        <time>2017-07-31T08:36:29Z</time>
      </trkpt>
      <trkpt lat="42.44215" lon="0.04378">
        <ele>774.4</ele>
        <time>2017-07-31T08:36:31Z</time>
      </trkpt>
      <trkpt lat="42.44211" lon="0.04377">
        <ele>774.7</ele>
        <time>2017-07-31T08:36:33Z</time>
      </trkpt>
      <trkpt lat="42.44207" lon="0.04375">
        <ele>775.1</ele>
        <time>2017-07-31T08:36:35Z</time>
      </trkpt>
      <trkpt lat="42.44202" lon="0.04374">
        <ele>775.5</ele>
        <time>2017-07-31T08:36:37Z</time>
      </trkpt>
      <trkpt lat="42.44198" lon="0.04372">
        <ele>775.8</ele>
        <time>2017-07-31T08:36:39Z</time>
      </trkpt>
      <trkpt lat="42.44193" lon="0.0437">
        <ele>776.2</ele>
        <time>2017-07-31T08:36:41Z</time>
      </trkpt>
      <trkpt lat="42.44189" lon="0.04369">
        <ele>776.7</ele>
        <time>2017-07-31T08:36:43Z</time>
      </trkpt>
      <trkpt lat="42.44185" lon="0.04367">
        <ele>777.1</ele>
        <time>2017-07-31T08:36:45Z</time>
      </trkpt>
      <trkpt lat="42.4418" lon="0.04366">
        <ele>777.5</ele>
        <time>2017-07-31T08:36:47Z</time>
      </trkpt>
      <trkpt lat="42.44176" lon="0.04364">
        <ele>777.9</ele>
        <time>2017-07-31T08:36:49Z</time>
      </trkpt>
      <trkpt lat="42.44171" lon="0.04363">
        <ele>778.2</ele>
        <time>2017-07-31T08:36:51Z</time>
      </trkpt>
      <trkpt lat="42.44167" lon="0.0436">
        <ele>778.6</ele>
        <time>2017-07-31T08:36:53Z</time>
      </trkpt>
      <trkpt lat="42.44163" lon="0.04358">
        <ele>779</ele>
        <time>2017-07-31T08:36:55Z</time>
      </trkpt>
      <trkpt lat="42.44159" lon="0.04356">
        <ele>779.4</ele>
        <time>2017-07-31T08:36:57Z</time>
      </trkpt>
      <trkpt lat="42.44155" lon="0.04355">
        <ele>779.7</ele>
        <time>2017-07-31T08:36:59Z</time>
      </trkpt>
      <trkpt lat="42.44151" lon="0.04353">
        <ele>780.1</ele>
        <time>2017-07-31T08:37:01Z</time>
      </trkpt>
      <trkpt lat="42.44146" lon="0.04351">
        <ele>780.4</ele>
        <time>2017-07-31T08:37:03Z</time>
      </trkpt>
      <trkpt lat="42.44142" lon="0.0435">
        <ele>780.8</ele>
        <time>2017-07-31T08:37:05Z</time>
      </trkpt>
      <trkpt lat="42.44138" lon="0.04348">
        <ele>781.1</ele>
        <time>2017-07-31T08:37:07Z</time>
      </trkpt>
      <trkpt lat="42.44133" lon="0.04347">
        <ele>781.5</ele>
        <time>2017-07-31T08:37:09Z</time>
      </trkpt>
      <trkpt lat="42.44129" lon="0.04345">
        <ele>781.8</ele>
        <time>2017-07-31T08:37:11Z</time>
      </trkpt>
      <trkpt lat="42.44125" lon="0.04344">
        <ele>782.1</ele>
        <time>2017-07-31T08:37:13Z</time>
      </trkpt>
      <trkpt lat="42.44121" lon="0.04343">
        <ele>782.5</ele>
        <time>2017-07-31T08:37:15Z</time>
      </trkpt>
      <trkpt lat="42.44116" lon="0.04342">
        <ele>782.8</ele>
        <time>2017-07-31T08:37:17Z</time>
      </trkpt>
      <trkpt lat="42.44112" lon="0.0434">
        <ele>783.2</ele>
        <time>2017-07-31T08:37:19Z</time>
      </trkpt>
      <trkpt lat="42.44107" lon="0.04339">
        <ele>783.6</ele>
        <time>2017-07-31T08:37:21Z</time>
      </trkpt>
      <trkpt lat="42.44102" lon="0.04337">
        <ele>783.9</ele>
        <time>2017-07-31T08:37:23Z</time>
      </trkpt>
      <trkpt lat="42.44098" lon="0.04335">
        <ele>784.3</ele>
        <time>2017-07-31T08:37:25Z</time>
      </trkpt>
      <trkpt lat="42.44093" lon="0.04334">
        <ele>784.7</ele>
        <time>2017-07-31T08:37:27Z</time>
      </trkpt>
      <trkpt lat="42.44089" lon="0.04332">
        <ele>785</ele>
        <time>2017-07-31T08:37:29Z</time>
      </trkpt>
      <trkpt lat="42.44085" lon="0.0433">
        <ele>785.4</ele>
        <time>2017-07-31T08:37:31Z</time>
      </trkpt>
      <trkpt lat="42.4408" lon="0.04327">
        <ele>785.8</ele>
        <time>2017-07-31T08:37:33Z</time>
      </trkpt>
      <trkpt lat="42.44076" lon="0.04325">
        <ele>786.2</ele>
        <time>2017-07-31T08:37:35Z</time>
      </trkpt>
      <trkpt lat="42.44071" lon="0.04323">
        <ele>786.5</ele>
        <time>2017-07-31T08:37:37Z</time>
      </trkpt>
      <trkpt lat="42.44067" lon="0.04322">
        <ele>786.9</ele>
        <time>2017-07-31T08:37:39Z</time>
      </trkpt>
      <trkpt lat="42.44062" lon="0.0432">
        <ele>787.2</ele>
        <time>2017-07-31T08:37:41Z</time>
      </trkpt>
      <trkpt lat="42.44058" lon="0.04319">
        <ele>787.5</ele>
        <time>2017-07-31T08:37:43Z</time>
      </trkpt>
      <trkpt lat="42.44054" lon="0.04317">
        <ele>787.9</ele>
        <time>2017-07-31T08:37:45Z</time>
      </trkpt>
      <trkpt lat="42.44049" lon="0.04316">
        <ele>788.3</ele>
        <time>2017-07-31T08:37:47Z</time>
      </trkpt>
      <trkpt lat="42.44044" lon="0.04314">
        <ele>788.6</ele>
        <time>2017-07-31T08:37:49Z</time>
      </trkpt>
      <trkpt lat="42.4404" lon="0.04312">
        <ele>788.9</ele>
        <time>2017-07-31T08:37:51Z</time>
      </trkpt>
      <trkpt lat="42.44035" lon="0.04309">
        <ele>789.3</ele>
        <time>2017-07-31T08:37:53Z</time>
      </trkpt>
      <trkpt lat="42.44031" lon="0.04307">
        <ele>789.6</ele>
        <time>2017-07-31T08:37:55Z</time>
      </trkpt>
      <trkpt lat="42.44027" lon="0.04304">
        <ele>790</ele>
        <time>2017-07-31T08:37:57Z</time>
      </trkpt>
      <trkpt lat="42.44023" lon="0.04302">
        <ele>790.3</ele>
        <time>2017-07-31T08:37:59Z</time>
      </trkpt>
      <trkpt lat="42.44018" lon="0.04299">
        <ele>790.7</ele>
        <time>2017-07-31T08:38:01Z</time>
      </trkpt>
      <trkpt lat="42.44014" lon="0.04295">
        <ele>791</ele>
        <time>2017-07-31T08:38:03Z</time>
      </trkpt>
      <trkpt lat="42.4401" lon="0.04291">
        <ele>791.4</ele>
        <time>2017-07-31T08:38:05Z</time>
      </trkpt>
      <trkpt lat="42.44006" lon="0.04288">
        <ele>791.8</ele>
        <time>2017-07-31T08:38:07Z</time>
      </trkpt>
      <trkpt lat="42.44003" lon="0.04285">
        <ele>792.1</ele>
        <time>2017-07-31T08:38:09Z</time>
      </trkpt>
      <trkpt lat="42.43999" lon="0.04282">
        <ele>792.4</ele>
        <time>2017-07-31T08:38:11Z</time>
      </trkpt>
      <trkpt lat="42.43995" lon="0.04278">
        <ele>792.8</ele>
        <time>2017-07-31T08:38:13Z</time>
      </trkpt>
      <trkpt lat="42.43991" lon="0.04275">
        <ele>793.1</ele>
        <time>2017-07-31T08:38:15Z</time>
      </trkpt>
      <trkpt lat="42.43988" lon="0.04271">
        <ele>793.4</ele>
        <time>2017-07-31T08:38:17Z</time>
      </trkpt>
      <trkpt lat="42.43984" lon="0.04267">
        <ele>793.7</ele>
        <time>2017-07-31T08:38:19Z</time>
      </trkpt>
      <trkpt lat="42.4398" lon="0.04264">
        <ele>794</ele>
        <time>2017-07-31T08:38:21Z</time>
      </trkpt>
      <trkpt lat="42.43976" lon="0.04261">
        <ele>794.3</ele>
        <time>2017-07-31T08:38:23Z</time>
      </trkpt>
      <trkpt lat="42.43972" lon="0.04258">
        <ele>794.6</ele>
        <time>2017-07-31T08:38:25Z</time>
      </trkpt>
      <trkpt lat="42.43968" lon="0.04255">
        <ele>794.9</ele>
        <time>2017-07-31T08:38:27Z</time>
      </trkpt>
      <trkpt lat="42.43964" lon="0.04252">
        <ele>795.2</ele>
        <time>2017-07-31T08:38:29Z</time>
      </trkpt>
      <trkpt lat="42.4396" lon="0.04248">
        <ele>795.5</ele>
        <time>2017-07-31T08:38:31Z</time>
      </trkpt>
      <trkpt lat="42.43956" lon="0.04244">
        <ele>795.8</ele>
        <time>2017-07-31T08:38:33Z</time>
      </trkpt>
      <trkpt lat="42.43951" lon="0.04241">
        <ele>796</ele>
        <time>2017-07-31T08:38:35Z</time>
      </trkpt>
      <trkpt lat="42.43947" lon="0.04238">
        <ele>796.3</ele>
        <time>2017-07-31T08:38:37Z</time>
      </trkpt>
      <trkpt lat="42.43943" lon="0.04234">
        <ele>796.6</ele>
        <time>2017-07-31T08:38:39Z</time>
      </trkpt>
      <trkpt lat="42.4394" lon="0.04231">
        <ele>796.9</ele>
        <time>2017-07-31T08:38:41Z</time>
      </trkpt>
      <trkpt lat="42.43936" lon="0.04227">
        <ele>797.1</ele>
        <time>2017-07-31T08:38:43Z</time>
      </trkpt>
      <trkpt lat="42.43932" lon="0.04224">
        <ele>797.4</ele>
        <time>2017-07-31T08:38:45Z</time>
      </trkpt>
      <trkpt lat="42.43929" lon="0.0422">
        <ele>797.7</ele>
        <time>2017-07-31T08:38:47Z</time>
      </trkpt>
      <trkpt lat="42.43925" lon="0.04217">
        <ele>798</ele>
        <time>2017-07-31T08:38:49Z</time>
      </trkpt>
      <trkpt lat="42.43921" lon="0.04214">
        <ele>798.3</ele>
        <time>2017-07-31T08:38:51Z</time>
      </trkpt>
      <trkpt lat="42.43918" lon="0.0421">
        <ele>798.6</ele>
        <time>2017-07-31T08:38:53Z</time>
      </trkpt>
      <trkpt lat="42.43914" lon="0.04207">
        <ele>799</ele>
        <time>2017-07-31T08:38:55Z</time>
      </trkpt>
      <trkpt lat="42.4391" lon="0.04204">
        <ele>799.3</ele>
        <time>2017-07-31T08:38:57Z</time>
      </trkpt>
      <trkpt lat="42.43906" lon="0.04201">
        <ele>799.7</ele>
        <time>2017-07-31T08:38:59Z</time>
      </trkpt>
      <trkpt lat="42.43903" lon="0.04198">
        <ele>800</ele>
        <time>2017-07-31T08:39:01Z</time>
      </trkpt>
      <trkpt lat="42.43899" lon="0.04194">
        <ele>800.5</ele>
        <time>2017-07-31T08:39:03Z</time>
      </trkpt>
      <trkpt lat="42.43895" lon="0.04191">
        <ele>800.9</ele>
        <time>2017-07-31T08:39:05Z</time>
      </trkpt>
      <trkpt lat="42.43891" lon="0.04188">
        <ele>801.3</ele>
        <time>2017-07-31T08:39:07Z</time>
      </trkpt>
      <trkpt lat="42.43887" lon="0.04184">
        <ele>801.7</ele>
        <time>2017-07-31T08:39:09Z</time>
      </trkpt>
      <trkpt lat="42.43883" lon="0.04181">
        <ele>802.2</ele>
        <time>2017-07-31T08:39:11Z</time>
      </trkpt>
      <trkpt lat="42.43879" lon="0.04177">
        <ele>802.6</ele>
        <time>2017-07-31T08:39:13Z</time>
      </trkpt>
      <trkpt lat="42.43875" lon="0.04174">
        <ele>803</ele>
        <time>2017-07-31T08:39:15Z</time>
      </trkpt>
      <trkpt lat="42.43872" lon="0.0417">
        <ele>803.3</ele>
        <time>2017-07-31T08:39:17Z</time>
      </trkpt>
      <trkpt lat="42.43868" lon="0.04167">
        <ele>803.7</ele>
        <time>2017-07-31T08:39:19Z</time>
      </trkpt>
      <trkpt lat="42.43865" lon="0.04165">
        <ele>804</ele>
        <time>2017-07-31T08:39:21Z</time>
      </trkpt>
      <trkpt lat="42.43861" lon="0.04161">
        <ele>804.3</ele>
        <time>2017-07-31T08:39:23Z</time>
      </trkpt>
      <trkpt lat="42.43857" lon="0.04159">
        <ele>804.7</ele>
        <time>2017-07-31T08:39:25Z</time>
      </trkpt>
      <trkpt lat="42.43853" lon="0.04158">
        <ele>805</ele>
        <time>2017-07-31T08:39:27Z</time>
      </trkpt>
      <trkpt lat="42.43849" lon="0.04156">
        <ele>805.4</ele>
        <time>2017-07-31T08:39:29Z</time>
      </trkpt>
      <trkpt lat="42.43845" lon="0.04153">
        <ele>805.7</ele>
        <time>2017-07-31T08:39:31Z</time>
      </trkpt>
      <trkpt lat="42.43841" lon="0.04151">
        <ele>806.1</ele>
        <time>2017-07-31T08:39:33Z</time>
      </trkpt>
      <trkpt lat="42.43837" lon="0.0415">
        <ele>806.4</ele>
        <time>2017-07-31T08:39:35Z</time>
      </trkpt>
      <trkpt lat="42.43833" lon="0.04148">
        <ele>806.7</ele>
        <time>2017-07-31T08:39:37Z</time>
      </trkpt>
      <trkpt lat="42.43829" lon="0.04147">
        <ele>807.1</ele>
        <time>2017-07-31T08:39:39Z</time>
      </trkpt>
      <trkpt lat="42.43824" lon="0.04146">
        <ele>807.5</ele>
        <time>2017-07-31T08:39:41Z</time>
      </trkpt>
      <trkpt lat="42.4382" lon="0.04145">
        <ele>807.9</ele>
        <time>2017-07-31T08:39:43Z</time>
      </trkpt>
      <trkpt lat="42.43816" lon="0.04144">
        <ele>808.3</ele>
        <time>2017-07-31T08:39:45Z</time>
      </trkpt>
      <trkpt lat="42.43812" lon="0.04141">
        <ele>808.7</ele>
        <time>2017-07-31T08:39:47Z</time>
      </trkpt>
      <trkpt lat="42.43808" lon="0.04138">
        <ele>809.1</ele>
        <time>2017-07-31T08:39:49Z</time>
      </trkpt>
      <trkpt lat="42.43805" lon="0.04133">
        <ele>809.5</ele>
        <time>2017-07-31T08:39:51Z</time>
      </trkpt>
      <trkpt lat="42.43802" lon="0.04128">
        <ele>810</ele>
        <time>2017-07-31T08:39:53Z</time>
      </trkpt>
      <trkpt lat="42.43799" lon="0.04123">
        <ele>810.5</ele>
        <time>2017-07-31T08:39:55Z</time>
      </trkpt>
      <trkpt lat="42.43797" lon="0.04117">
        <ele>810.9</ele>
        <time>2017-07-31T08:39:57Z</time>
      </trkpt>
      <trkpt lat="42.43795" lon="0.04111">
        <ele>811.4</ele>
        <time>2017-07-31T08:39:59Z</time>
      </trkpt>
      <trkpt lat="42.43793" lon="0.04105">
        <ele>811.8</ele>
        <time>2017-07-31T08:40:01Z</time>
      </trkpt>
      <trkpt lat="42.4379" lon="0.041">
        <ele>812.2</ele>
        <time>2017-07-31T08:40:03Z</time>
      </trkpt>
      <trkpt lat="42.43787" lon="0.04096">
        <ele>812.6</ele>
        <time>2017-07-31T08:40:05Z</time>
      </trkpt>
      <trkpt lat="42.43785" lon="0.04091">
        <ele>812.9</ele>
        <time>2017-07-31T08:40:07Z</time>
      </trkpt>
      <trkpt lat="42.43782" lon="0.04087">
        <ele>813.3</ele>
        <time>2017-07-31T08:40:09Z</time>
      </trkpt>
      <trkpt lat="42.43779" lon="0.04082">
        <ele>813.7</ele>
        <time>2017-07-31T08:40:11Z</time>
      </trkpt>
      <trkpt lat="42.43776" lon="0.04078">
        <ele>814.1</ele>
        <time>2017-07-31T08:40:13Z</time>
      </trkpt>
      <trkpt lat="42.43773" lon="0.04074">
        <ele>814.5</ele>
        <time>2017-07-31T08:40:15Z</time>
      </trkpt>
      <trkpt lat="42.4377" lon="0.04071">
        <ele>814.8</ele>
        <time>2017-07-31T08:40:17Z</time>
      </trkpt>
      <trkpt lat="42.43766" lon="0.04067">
        <ele>815.2</ele>
        <time>2017-07-31T08:40:19Z</time>
      </trkpt>
      <trkpt lat="42.43762" lon="0.04064">
        <ele>815.7</ele>
        <time>2017-07-31T08:40:21Z</time>
      </trkpt>
      <trkpt lat="42.43758" lon="0.04061">
        <ele>816.1</ele>
        <time>2017-07-31T08:40:23Z</time>
      </trkpt>
      <trkpt lat="42.43754" lon="0.04059">
        <ele>816.5</ele>
        <time>2017-07-31T08:40:25Z</time>
      </trkpt>
      <trkpt lat="42.4375" lon="0.04056">
        <ele>816.9</ele>
        <time>2017-07-31T08:40:27Z</time>
      </trkpt>
      <trkpt lat="42.43747" lon="0.04053">
        <ele>817.3</ele>
        <time>2017-07-31T08:40:29Z</time>
      </trkpt>
      <trkpt lat="42.43743" lon="0.04051">
        <ele>817.7</ele>
        <time>2017-07-31T08:40:31Z</time>
      </trkpt>
      <trkpt lat="42.43739" lon="0.04048">
        <ele>818.1</ele>
        <time>2017-07-31T08:40:33Z</time>
      </trkpt>
      <trkpt lat="42.43736" lon="0.04045">
        <ele>818.5</ele>
        <time>2017-07-31T08:40:35Z</time>
      </trkpt>
      <trkpt lat="42.43733" lon="0.04041">
        <ele>818.9</ele>
        <time>2017-07-31T08:40:37Z</time>
      </trkpt>
      <trkpt lat="42.4373" lon="0.04036">
        <ele>819.3</ele>
        <time>2017-07-31T08:40:39Z</time>
      </trkpt>
      <trkpt lat="42.43728" lon="0.04032">
        <ele>819.6</ele>
        <time>2017-07-31T08:40:41Z</time>
      </trkpt>
      <trkpt lat="42.43726" lon="0.04027">
        <ele>820</ele>
        <time>2017-07-31T08:40:43Z</time>
      </trkpt>
      <trkpt lat="42.43724" lon="0.04022">
        <ele>820.4</ele>
        <time>2017-07-31T08:40:45Z</time>
      </trkpt>
      <trkpt lat="42.43722" lon="0.04018">
        <ele>820.7</ele>
        <time>2017-07-31T08:40:47Z</time>
      </trkpt>
      <trkpt lat="42.43719" lon="0.04013">
        <ele>821.1</ele>
        <time>2017-07-31T08:40:49Z</time>
      </trkpt>
      <trkpt lat="42.43716" lon="0.04009">
        <ele>821.5</ele>
        <time>2017-07-31T08:40:51Z</time>
      </trkpt>
      <trkpt lat="42.43714" lon="0.04005">
        <ele>821.9</ele>
        <time>2017-07-31T08:40:53Z</time>
      </trkpt>
      <trkpt lat="42.43712" lon="0.03999">
        <ele>822.3</ele>
        <time>2017-07-31T08:40:55Z</time>
      </trkpt>
      <trkpt lat="42.4371" lon="0.03994">
        <ele>822.6</ele>
        <time>2017-07-31T08:40:57Z</time>
      </trkpt>
      <trkpt lat="42.43709" lon="0.0399">
        <ele>822.9</ele>
        <time>2017-07-31T08:40:59Z</time>
      </trkpt>
      <trkpt lat="42.43707" lon="0.03986">
        <ele>823.2</ele>
        <time>2017-07-31T08:41:01Z</time>
      </trkpt>
      <trkpt lat="42.43705" lon="0.03982">
        <ele>823.5</ele>
        <time>2017-07-31T08:41:03Z</time>
      </trkpt>
      <trkpt lat="42.43702" lon="0.03978">
        <ele>823.9</ele>
        <time>2017-07-31T08:41:05Z</time>
      </trkpt>
      <trkpt lat="42.43699" lon="0.03975">
        <ele>824.2</ele>
        <time>2017-07-31T08:41:07Z</time>
      </trkpt>
      <trkpt lat="42.43696" lon="0.03973">
        <ele>824.5</ele>
        <time>2017-07-31T08:41:09Z</time>
      </trkpt>
      <trkpt lat="42.43692" lon="0.0397">
        <ele>824.9</ele>
        <time>2017-07-31T08:41:11Z</time>
      </trkpt>
      <trkpt lat="42.43689" lon="0.03968">
        <ele>825.2</ele>
        <time>2017-07-31T08:41:13Z</time>
      </trkpt>
      <trkpt lat="42.43685" lon="0.03966">
        <ele>825.6</ele>
        <time>2017-07-31T08:41:15Z</time>
      </trkpt>
      <trkpt lat="42.43682" lon="0.03964">
        <ele>825.9</ele>
        <time>2017-07-31T08:41:17Z</time>
      </trkpt>
      <trkpt lat="42.43678" lon="0.03961">
        <ele>826.3</ele>
        <time>2017-07-31T08:41:19Z</time>
      </trkpt>
      <trkpt lat="42.43675" lon="0.03958">
        <ele>826.7</ele>
        <time>2017-07-31T08:41:21Z</time>
      </trkpt>
      <trkpt lat="42.43671" lon="0.03955">
        <ele>827.1</ele>
        <time>2017-07-31T08:41:23Z</time>
      </trkpt>
      <trkpt lat="42.43668" lon="0.03951">
        <ele>827.5</ele>
        <time>2017-07-31T08:41:25Z</time>
      </trkpt>
      <trkpt lat="42.43665" lon="0.03948">
        <ele>827.9</ele>
        <time>2017-07-31T08:41:27Z</time>
      </trkpt>
      <trkpt lat="42.43662" lon="0.03945">
        <ele>828.3</ele>
        <time>2017-07-31T08:41:29Z</time>
      </trkpt>
      <trkpt lat="42.43659" lon="0.03942">
        <ele>828.7</ele>
        <time>2017-07-31T08:41:31Z</time>
      </trkpt>
      <trkpt lat="42.43657" lon="0.03937">
        <ele>829.1</ele>
        <time>2017-07-31T08:41:33Z</time>
      </trkpt>
      <trkpt lat="42.43654" lon="0.03933">
        <ele>829.4</ele>
        <time>2017-07-31T08:41:35Z</time>
      </trkpt>
      <trkpt lat="42.43652" lon="0.03928">
        <ele>829.8</ele>
        <time>2017-07-31T08:41:37Z</time>
      </trkpt>
      <trkpt lat="42.43651" lon="0.03923">
        <ele>830.2</ele>
        <time>2017-07-31T08:41:39Z</time>
      </trkpt>
      <trkpt lat="42.43649" lon="0.03918">
        <ele>830.6</ele>
        <time>2017-07-31T08:41:41Z</time>
      </trkpt>
      <trkpt lat="42.43647" lon="0.03912">
        <ele>831</ele>
        <time>2017-07-31T08:41:43Z</time>
      </trkpt>
      <trkpt lat="42.43646" lon="0.03907">
        <ele>831.4</ele>
        <time>2017-07-31T08:41:45Z</time>
      </trkpt>
      <trkpt lat="42.43644" lon="0.03901">
        <ele>831.7</ele>
        <time>2017-07-31T08:41:47Z</time>
      </trkpt>
      <trkpt lat="42.43642" lon="0.03895">
        <ele>832.1</ele>
        <time>2017-07-31T08:41:49Z</time>
      </trkpt>
      <trkpt lat="42.4364" lon="0.03889">
        <ele>832.5</ele>
        <time>2017-07-31T08:41:51Z</time>
      </trkpt>
      <trkpt lat="42.43639" lon="0.03884">
        <ele>832.8</ele>
        <time>2017-07-31T08:41:53Z</time>
      </trkpt>
      <trkpt lat="42.43637" lon="0.03879">
        <ele>833.2</ele>
        <time>2017-07-31T08:41:55Z</time>
      </trkpt>
      <trkpt lat="42.43635" lon="0.03873">
        <ele>833.5</ele>
        <time>2017-07-31T08:41:57Z</time>
      </trkpt>
      <trkpt lat="42.43634" lon="0.03867">
        <ele>833.9</ele>
        <time>2017-07-31T08:41:59Z</time>
      </trkpt>
      <trkpt lat="42.43632" lon="0.03862">
        <ele>834.2</ele>
        <time>2017-07-31T08:42:01Z</time>
      </trkpt>
      <trkpt lat="42.43632" lon="0.03856">
        <ele>834.6</ele>
        <time>2017-07-31T08:42:03Z</time>
      </trkpt>
      <trkpt lat="42.43632" lon="0.0385">
        <ele>835</ele>
        <time>2017-07-31T08:42:05Z</time>
      </trkpt>
      <trkpt lat="42.43632" lon="0.03844">
        <ele>835.4</ele>
        <time>2017-07-31T08:42:07Z</time>
      </trkpt>
      <trkpt lat="42.43633" lon="0.03839">
        <ele>835.8</ele>
        <time>2017-07-31T08:42:09Z</time>
      </trkpt>
      <trkpt lat="42.43635" lon="0.03833">
        <ele>836.2</ele>
        <time>2017-07-31T08:42:11Z</time>
      </trkpt>
      <trkpt lat="42.43635" lon="0.03827">
        <ele>836.6</ele>
        <time>2017-07-31T08:42:13Z</time>
      </trkpt>
      <trkpt lat="42.43635" lon="0.03821">
        <ele>837</ele>
        <time>2017-07-31T08:42:15Z</time>
      </trkpt>
      <trkpt lat="42.43634" lon="0.03815">
        <ele>837.4</ele>
        <time>2017-07-31T08:42:17Z</time>
      </trkpt>
      <trkpt lat="42.43633" lon="0.03809">
        <ele>837.9</ele>
        <time>2017-07-31T08:42:19Z</time>
      </trkpt>
      <trkpt lat="42.4363" lon="0.03803">
        <ele>838.4</ele>
        <time>2017-07-31T08:42:21Z</time>
      </trkpt>
      <trkpt lat="42.43628" lon="0.03797">
        <ele>838.9</ele>
        <time>2017-07-31T08:42:23Z</time>
      </trkpt>
      <trkpt lat="42.43626" lon="0.03792">
        <ele>839.3</ele>
        <time>2017-07-31T08:42:25Z</time>
      </trkpt>
      <trkpt lat="42.43623" lon="0.03787">
        <ele>839.7</ele>
        <time>2017-07-31T08:42:27Z</time>
      </trkpt>
      <trkpt lat="42.4362" lon="0.03783">
        <ele>840.2</ele>
        <time>2017-07-31T08:42:29Z</time>
      </trkpt>
      <trkpt lat="42.43616" lon="0.0378">
        <ele>840.6</ele>
        <time>2017-07-31T08:42:31Z</time>
      </trkpt>
      <trkpt lat="42.43613" lon="0.03776">
        <ele>840.9</ele>
        <time>2017-07-31T08:42:33Z</time>
      </trkpt>
      <trkpt lat="42.43609" lon="0.03772">
        <ele>841.3</ele>
        <time>2017-07-31T08:42:35Z</time>
      </trkpt>
      <trkpt lat="42.43606" lon="0.03768">
        <ele>841.7</ele>
        <time>2017-07-31T08:42:37Z</time>
      </trkpt>
      <trkpt lat="42.43603" lon="0.03763">
        <ele>842.1</ele>
        <time>2017-07-31T08:42:39Z</time>
      </trkpt>
      <trkpt lat="42.436" lon="0.03759">
        <ele>842.5</ele>
        <time>2017-07-31T08:42:41Z</time>
      </trkpt>
      <trkpt lat="42.43597" lon="0.03754">
        <ele>842.8</ele>
        <time>2017-07-31T08:42:43Z</time>
      </trkpt>
      <trkpt lat="42.43594" lon="0.03749">
        <ele>843.2</ele>
        <time>2017-07-31T08:42:45Z</time>
      </trkpt>
      <trkpt lat="42.43591" lon="0.03744">
        <ele>843.5</ele>
        <time>2017-07-31T08:42:47Z</time>
      </trkpt>
      <trkpt lat="42.43589" lon="0.03739">
        <ele>843.9</ele>
        <time>2017-07-31T08:42:49Z</time>
      </trkpt>
      <trkpt lat="42.43587" lon="0.03734">
        <ele>844.3</ele>
        <time>2017-07-31T08:42:51Z</time>
      </trkpt>
      <trkpt lat="42.43584" lon="0.03729">
        <ele>844.6</ele>
        <time>2017-07-31T08:42:53Z</time>
      </trkpt>
      <trkpt lat="42.43582" lon="0.03725">
        <ele>845</ele>
        <time>2017-07-31T08:42:55Z</time>
      </trkpt>
      <trkpt lat="42.43579" lon="0.0372">
        <ele>845.4</ele>
        <time>2017-07-31T08:42:57Z</time>
      </trkpt>
      <trkpt lat="42.43578" lon="0.03714">
        <ele>845.9</ele>
        <time>2017-07-31T08:42:59Z</time>
      </trkpt>
      <trkpt lat="42.43576" lon="0.03709">
        <ele>846.3</ele>
        <time>2017-07-31T08:43:01Z</time>
      </trkpt>
      <trkpt lat="42.43575" lon="0.03703">
        <ele>846.7</ele>
        <time>2017-07-31T08:43:03Z</time>
      </trkpt>
      <trkpt lat="42.43574" lon="0.03697">
        <ele>847.2</ele>
        <time>2017-07-31T08:43:05Z</time>
      </trkpt>
      <trkpt lat="42.43574" lon="0.03691">
        <ele>847.6</ele>
        <time>2017-07-31T08:43:07Z</time>
      </trkpt>
      <trkpt lat="42.43574" lon="0.03685">
        <ele>848.1</ele>
        <time>2017-07-31T08:43:09Z</time>
      </trkpt>
      <trkpt lat="42.43574" lon="0.03679">
        <ele>848.6</ele>
        <time>2017-07-31T08:43:11Z</time>
      </trkpt>
      <trkpt lat="42.43575" lon="0.03673">
        <ele>849</ele>
        <time>2017-07-31T08:43:13Z</time>
      </trkpt>
      <trkpt lat="42.43578" lon="0.03667">
        <ele>849.4</ele>
        <time>2017-07-31T08:43:15Z</time>
      </trkpt>
      <trkpt lat="42.4358" lon="0.03662">
        <ele>849.9</ele>
        <time>2017-07-31T08:43:17Z</time>
      </trkpt>
      <trkpt lat="42.43582" lon="0.03657">
        <ele>850.4</ele>
        <time>2017-07-31T08:43:19Z</time>
      </trkpt>
      <trkpt lat="42.43585" lon="0.03652">
        <ele>850.9</ele>
        <time>2017-07-31T08:43:21Z</time>
      </trkpt>
      <trkpt lat="42.43588" lon="0.03648">
        <ele>851.3</ele>
        <time>2017-07-31T08:43:23Z</time>
      </trkpt>
      <trkpt lat="42.4359" lon="0.03643">
        <ele>851.8</ele>
        <time>2017-07-31T08:43:25Z</time>
      </trkpt>
      <trkpt lat="42.43593" lon="0.03638">
        <ele>852.3</ele>
        <time>2017-07-31T08:43:27Z</time>
      </trkpt>
      <trkpt lat="42.43595" lon="0.03633">
        <ele>852.7</ele>
        <time>2017-07-31T08:43:29Z</time>
      </trkpt>
      <trkpt lat="42.43596" lon="0.03628">
        <ele>853.1</ele>
        <time>2017-07-31T08:43:31Z</time>
      </trkpt>
      <trkpt lat="42.43597" lon="0.03622">
        <ele>853.5</ele>
        <time>2017-07-31T08:43:33Z</time>
      </trkpt>
      <trkpt lat="42.43597" lon="0.03617">
        <ele>853.9</ele>
        <time>2017-07-31T08:43:35Z</time>
      </trkpt>
      <trkpt lat="42.43597" lon="0.03611">
        <ele>854.3</ele>
        <time>2017-07-31T08:43:37Z</time>
      </trkpt>
      <trkpt lat="42.43596" lon="0.03605">
        <ele>854.7</ele>
        <time>2017-07-31T08:43:39Z</time>
      </trkpt>
      <trkpt lat="42.43596" lon="0.03599">
        <ele>855.1</ele>
        <time>2017-07-31T08:43:41Z</time>
      </trkpt>
      <trkpt lat="42.43595" lon="0.03593">
        <ele>855.5</ele>
        <time>2017-07-31T08:43:43Z</time>
      </trkpt>
      <trkpt lat="42.43594" lon="0.03588">
        <ele>855.9</ele>
        <time>2017-07-31T08:43:45Z</time>
      </trkpt>
      <trkpt lat="42.43591" lon="0.03583">
        <ele>856.3</ele>
        <time>2017-07-31T08:43:47Z</time>
      </trkpt>
      <trkpt lat="42.43588" lon="0.03578">
        <ele>856.6</ele>
        <time>2017-07-31T08:43:49Z</time>
      </trkpt>
      <trkpt lat="42.43585" lon="0.03574">
        <ele>857</ele>
        <time>2017-07-31T08:43:51Z</time>
      </trkpt>
      <trkpt lat="42.43581" lon="0.0357">
        <ele>857.3</ele>
        <time>2017-07-31T08:43:53Z</time>
      </trkpt>
      <trkpt lat="42.43578" lon="0.03566">
        <ele>857.6</ele>
        <time>2017-07-31T08:43:55Z</time>
      </trkpt>
      <trkpt lat="42.43574" lon="0.03563">
        <ele>857.9</ele>
        <time>2017-07-31T08:43:57Z</time>
      </trkpt>
      <trkpt lat="42.4357" lon="0.0356">
        <ele>858.2</ele>
        <time>2017-07-31T08:43:59Z</time>
      </trkpt>
      <trkpt lat="42.43566" lon="0.03557">
        <ele>858.5</ele>
        <time>2017-07-31T08:44:01Z</time>
      </trkpt>
      <trkpt lat="42.43562" lon="0.03554">
        <ele>858.8</ele>
        <time>2017-07-31T08:44:03Z</time>
      </trkpt>
      <trkpt lat="42.43558" lon="0.0355">
        <ele>859</ele>
        <time>2017-07-31T08:44:05Z</time>
      </trkpt>
      <trkpt lat="42.43554" lon="0.03547">
        <ele>859.2</ele>
        <time>2017-07-31T08:44:07Z</time>
      </trkpt>
      <trkpt lat="42.4355" lon="0.03545">
        <ele>859.5</ele>
        <time>2017-07-31T08:44:09Z</time>
      </trkpt>
      <trkpt lat="42.43547" lon="0.03541">
        <ele>859.7</ele>
        <time>2017-07-31T08:44:11Z</time>
      </trkpt>
      <trkpt lat="42.43543" lon="0.03537">
        <ele>859.9</ele>
        <time>2017-07-31T08:44:13Z</time>
      </trkpt>
      <trkpt lat="42.4354" lon="0.03532">
        <ele>860.1</ele>
        <time>2017-07-31T08:44:15Z</time>
      </trkpt>
      <trkpt lat="42.43536" lon="0.03527">
        <ele>860.3</ele>
        <time>2017-07-31T08:44:17Z</time>
      </trkpt>
      <trkpt lat="42.43533" lon="0.03522">
        <ele>860.5</ele>
        <time>2017-07-31T08:44:19Z</time>
      </trkpt>
      <trkpt lat="42.43531" lon="0.03516">
        <ele>860.7</ele>
        <time>2017-07-31T08:44:21Z</time>
      </trkpt>
      <trkpt lat="42.43528" lon="0.03511">
        <ele>860.9</ele>
        <time>2017-07-31T08:44:23Z</time>
      </trkpt>
      <trkpt lat="42.43527" lon="0.03506">
        <ele>861.1</ele>
        <time>2017-07-31T08:44:25Z</time>
      </trkpt>
      <trkpt lat="42.43525" lon="0.03499">
        <ele>861.3</ele>
        <time>2017-07-31T08:44:27Z</time>
      </trkpt>
      <trkpt lat="42.43523" lon="0.03494">
        <ele>861.5</ele>
        <time>2017-07-31T08:44:29Z</time>
      </trkpt>
      <trkpt lat="42.43521" lon="0.03488">
        <ele>861.8</ele>
        <time>2017-07-31T08:44:31Z</time>
      </trkpt>
      <trkpt lat="42.43519" lon="0.03482">
        <ele>862</ele>
        <time>2017-07-31T08:44:33Z</time>
      </trkpt>
      <trkpt lat="42.43517" lon="0.03477">
        <ele>862.2</ele>
        <time>2017-07-31T08:44:35Z</time>
      </trkpt>
      <trkpt lat="42.43515" lon="0.03471">
        <ele>862.5</ele>
        <time>2017-07-31T08:44:37Z</time>
      </trkpt>
      <trkpt lat="42.43513" lon="0.03466">
        <ele>862.8</ele>
        <time>2017-07-31T08:44:39Z</time>
      </trkpt>
      <trkpt lat="42.43511" lon="0.0346">
        <ele>863.1</ele>
        <time>2017-07-31T08:44:41Z</time>
      </trkpt>
      <trkpt lat="42.43509" lon="0.03454">
        <ele>863.3</ele>
        <time>2017-07-31T08:44:43Z</time>
      </trkpt>
      <trkpt lat="42.43507" lon="0.03448">
        <ele>863.6</ele>
        <time>2017-07-31T08:44:45Z</time>
      </trkpt>
      <trkpt lat="42.43504" lon="0.03443">
        <ele>863.9</ele>
        <time>2017-07-31T08:44:47Z</time>
      </trkpt>
      <trkpt lat="42.43502" lon="0.03438">
        <ele>864.2</ele>
        <time>2017-07-31T08:44:49Z</time>
      </trkpt>
      <trkpt lat="42.435" lon="0.03433">
        <ele>864.5</ele>
        <time>2017-07-31T08:44:51Z</time>
      </trkpt>
      <trkpt lat="42.43498" lon="0.03428">
        <ele>864.7</ele>
        <time>2017-07-31T08:44:53Z</time>
      </trkpt>
      <trkpt lat="42.43495" lon="0.03422">
        <ele>865.1</ele>
        <time>2017-07-31T08:44:55Z</time>
      </trkpt>
      <trkpt lat="42.43494" lon="0.03416">
        <ele>865.4</ele>
        <time>2017-07-31T08:44:57Z</time>
      </trkpt>
      <trkpt lat="42.43492" lon="0.0341">
        <ele>865.7</ele>
        <time>2017-07-31T08:44:59Z</time>
      </trkpt>
      <trkpt lat="42.43491" lon="0.03404">
        <ele>866</ele>
        <time>2017-07-31T08:45:01Z</time>
      </trkpt>
      <trkpt lat="42.43489" lon="0.03398">
        <ele>866.3</ele>
        <time>2017-07-31T08:45:03Z</time>
      </trkpt>
      <trkpt lat="42.43488" lon="0.03392">
        <ele>866.6</ele>
        <time>2017-07-31T08:45:05Z</time>
      </trkpt>
      <trkpt lat="42.43486" lon="0.03386">
        <ele>866.9</ele>
        <time>2017-07-31T08:45:07Z</time>
      </trkpt>
      <trkpt lat="42.43485" lon="0.0338">
        <ele>867.3</ele>
        <time>2017-07-31T08:45:09Z</time>
      </trkpt>
      <trkpt lat="42.43483" lon="0.03374">
        <ele>867.6</ele>
        <time>2017-07-31T08:45:11Z</time>
      </trkpt>
      <trkpt lat="42.43481" lon="0.03369">
        <ele>867.9</ele>
        <time>2017-07-31T08:45:13Z</time>
      </trkpt>
      <trkpt lat="42.43479" lon="0.03363">
        <ele>868.3</ele>
        <time>2017-07-31T08:45:15Z</time>
      </trkpt>
      <trkpt lat="42.43478" lon="0.03357">
        <ele>868.6</ele>
        <time>2017-07-31T08:45:17Z</time>
      </trkpt>
      <trkpt lat="42.43477" lon="0.03351">
        <ele>869</ele>
        <time>2017-07-31T08:45:19Z</time>
      </trkpt>
      <trkpt lat="42.43476" lon="0.03344">
        <ele>869.4</ele>
        <time>2017-07-31T08:45:21Z</time>
      </trkpt>
      <trkpt lat="42.43474" lon="0.03338">
        <ele>869.8</ele>
        <time>2017-07-31T08:45:23Z</time>
      </trkpt>
      <trkpt lat="42.43474" lon="0.03332">
        <ele>870.2</ele>
        <time>2017-07-31T08:45:25Z</time>
      </trkpt>
      <trkpt lat="42.43474" lon="0.03326">
        <ele>870.5</ele>
        <time>2017-07-31T08:45:27Z</time>
      </trkpt>
      <trkpt lat="42.43473" lon="0.0332">
        <ele>870.9</ele>
        <time>2017-07-31T08:45:29Z</time>
      </trkpt>
      <trkpt lat="42.43474" lon="0.03315">
        <ele>871.3</ele>
        <time>2017-07-31T08:45:31Z</time>
      </trkpt>
      <trkpt lat="42.43475" lon="0.03309">
        <ele>871.7</ele>
        <time>2017-07-31T08:45:33Z</time>
      </trkpt>
      <trkpt lat="42.43477" lon="0.03303">
        <ele>872.1</ele>
        <time>2017-07-31T08:45:35Z</time>
      </trkpt>
      <trkpt lat="42.43478" lon="0.03297">
        <ele>872.5</ele>
        <time>2017-07-31T08:45:37Z</time>
      </trkpt>
      <trkpt lat="42.4348" lon="0.03292">
        <ele>873</ele>
        <time>2017-07-31T08:45:39Z</time>
      </trkpt>
      <trkpt lat="42.43482" lon="0.03287">
        <ele>873.4</ele>
        <time>2017-07-31T08:45:41Z</time>
      </trkpt>
      <trkpt lat="42.43484" lon="0.03284">
        <ele>873.7</ele>
        <time>2017-07-31T08:45:42Z</time>
      </trkpt>
      <trkpt lat="42.43488" lon="0.03279">
        <ele>874.1</ele>
        <time>2017-07-31T08:45:44Z</time>
      </trkpt>
      <trkpt lat="42.4349" lon="0.03276">
        <ele>874.4</ele>
        <time>2017-07-31T08:45:45Z</time>
      </trkpt>
      <trkpt lat="42.43493" lon="0.03271">
        <ele>874.8</ele>
        <time>2017-07-31T08:45:47Z</time>
      </trkpt>
      <trkpt lat="42.43496" lon="0.03267">
        <ele>875.1</ele>
        <time>2017-07-31T08:45:49Z</time>
      </trkpt>
      <trkpt lat="42.435" lon="0.03263">
        <ele>875.5</ele>
        <time>2017-07-31T08:45:51Z</time>
      </trkpt>
      <trkpt lat="42.43503" lon="0.03259">
        <ele>875.8</ele>
        <time>2017-07-31T08:45:53Z</time>
      </trkpt>
      <trkpt lat="42.43506" lon="0.03254">
        <ele>876.1</ele>
        <time>2017-07-31T08:45:55Z</time>
      </trkpt>
      <trkpt lat="42.43509" lon="0.03249">
        <ele>876.4</ele>
        <time>2017-07-31T08:45:57Z</time>
      </trkpt>
      <trkpt lat="42.43511" lon="0.03244">
        <ele>876.7</ele>
        <time>2017-07-31T08:45:59Z</time>
      </trkpt>
      <trkpt lat="42.43513" lon="0.03239">
        <ele>877</ele>
        <time>2017-07-31T08:46:01Z</time>
      </trkpt>
      <trkpt lat="42.43514" lon="0.03233">
        <ele>877.3</ele>
        <time>2017-07-31T08:46:03Z</time>
      </trkpt>
      <trkpt lat="42.43515" lon="0.03227">
        <ele>877.6</ele>
        <time>2017-07-31T08:46:05Z</time>
      </trkpt>
      <trkpt lat="42.43514" lon="0.03221">
        <ele>877.8</ele>
        <time>2017-07-31T08:46:07Z</time>
      </trkpt>
      <trkpt lat="42.43513" lon="0.03215">
        <ele>878.1</ele>
        <time>2017-07-31T08:46:09Z</time>
      </trkpt>
      <trkpt lat="42.43512" lon="0.03209">
        <ele>878.5</ele>
        <time>2017-07-31T08:46:11Z</time>
      </trkpt>
      <trkpt lat="42.4351" lon="0.03204">
        <ele>878.8</ele>
        <time>2017-07-31T08:46:13Z</time>
      </trkpt>
      <trkpt lat="42.43507" lon="0.03199">
        <ele>879.2</ele>
        <time>2017-07-31T08:46:15Z</time>
      </trkpt>
      <trkpt lat="42.43503" lon="0.03195">
        <ele>879.6</ele>
        <time>2017-07-31T08:46:17Z</time>
      </trkpt>
      <trkpt lat="42.43499" lon="0.03192">
        <ele>880.1</ele>
        <time>2017-07-31T08:46:19Z</time>
      </trkpt>
      <trkpt lat="42.43495" lon="0.03189">
        <ele>880.5</ele>
        <time>2017-07-31T08:46:21Z</time>
      </trkpt>
      <trkpt lat="42.43491" lon="0.03186">
        <ele>880.9</ele>
        <time>2017-07-31T08:46:23Z</time>
      </trkpt>
      <trkpt lat="42.43487" lon="0.03184">
        <ele>881.4</ele>
        <time>2017-07-31T08:46:25Z</time>
      </trkpt>
      <trkpt lat="42.43482" lon="0.03182">
        <ele>881.8</ele>
        <time>2017-07-31T08:46:27Z</time>
      </trkpt>
      <trkpt lat="42.43477" lon="0.03181">
        <ele>882.3</ele>
        <time>2017-07-31T08:46:29Z</time>
      </trkpt>
      <trkpt lat="42.43473" lon="0.03179">
        <ele>882.8</ele>
        <time>2017-07-31T08:46:31Z</time>
      </trkpt>
      <trkpt lat="42.43468" lon="0.03176">
        <ele>883.2</ele>
        <time>2017-07-31T08:46:33Z</time>
      </trkpt>
      <trkpt lat="42.43464" lon="0.03173">
        <ele>883.7</ele>
        <time>2017-07-31T08:46:35Z</time>
      </trkpt>
      <trkpt lat="42.4346" lon="0.03171">
        <ele>884.1</ele>
        <time>2017-07-31T08:46:37Z</time>
      </trkpt>
      <trkpt lat="42.43456" lon="0.03167">
        <ele>884.6</ele>
        <time>2017-07-31T08:46:39Z</time>
      </trkpt>
      <trkpt lat="42.43452" lon="0.03163">
        <ele>885</ele>
        <time>2017-07-31T08:46:41Z</time>
      </trkpt>
      <trkpt lat="42.43449" lon="0.03159">
        <ele>885.5</ele>
        <time>2017-07-31T08:46:43Z</time>
      </trkpt>
      <trkpt lat="42.43446" lon="0.03154">
        <ele>885.9</ele>
        <time>2017-07-31T08:46:45Z</time>
      </trkpt>
      <trkpt lat="42.43444" lon="0.03148">
        <ele>886.3</ele>
        <time>2017-07-31T08:46:47Z</time>
      </trkpt>
      <trkpt lat="42.43443" lon="0.03143">
        <ele>886.8</ele>
        <time>2017-07-31T08:46:49Z</time>
      </trkpt>
      <trkpt lat="42.43442" lon="0.03137">
        <ele>887.2</ele>
        <time>2017-07-31T08:46:51Z</time>
      </trkpt>
      <trkpt lat="42.43441" lon="0.03131">
        <ele>887.6</ele>
        <time>2017-07-31T08:46:53Z</time>
      </trkpt>
      <trkpt lat="42.43441" lon="0.03125">
        <ele>888.1</ele>
        <time>2017-07-31T08:46:55Z</time>
      </trkpt>
      <trkpt lat="42.43441" lon="0.03119">
        <ele>888.5</ele>
        <time>2017-07-31T08:46:57Z</time>
      </trkpt>
      <trkpt lat="42.4344" lon="0.03113">
        <ele>888.9</ele>
        <time>2017-07-31T08:46:59Z</time>
      </trkpt>
      <trkpt lat="42.43439" lon="0.03107">
        <ele>889.4</ele>
        <time>2017-07-31T08:47:01Z</time>
      </trkpt>
      <trkpt lat="42.43438" lon="0.03102">
        <ele>889.8</ele>
        <time>2017-07-31T08:47:03Z</time>
      </trkpt>
      <trkpt lat="42.43437" lon="0.03096">
        <ele>890.2</ele>
        <time>2017-07-31T08:47:05Z</time>
      </trkpt>
      <trkpt lat="42.43435" lon="0.0309">
        <ele>890.6</ele>
        <time>2017-07-31T08:47:07Z</time>
      </trkpt>
      <trkpt lat="42.43433" lon="0.03085">
        <ele>891</ele>
        <time>2017-07-31T08:47:09Z</time>
      </trkpt>
      <trkpt lat="42.4343" lon="0.03079">
        <ele>891.5</ele>
        <time>2017-07-31T08:47:11Z</time>
      </trkpt>
      <trkpt lat="42.43428" lon="0.03074">
        <ele>891.8</ele>
        <time>2017-07-31T08:47:13Z</time>
      </trkpt>
      <trkpt lat="42.43425" lon="0.03069">
        <ele>892.2</ele>
        <time>2017-07-31T08:47:15Z</time>
      </trkpt>
      <trkpt lat="42.43423" lon="0.03065">
        <ele>892.6</ele>
        <time>2017-07-31T08:47:17Z</time>
      </trkpt>
      <trkpt lat="42.4342" lon="0.03059">
        <ele>892.9</ele>
        <time>2017-07-31T08:47:19Z</time>
      </trkpt>
      <trkpt lat="42.43418" lon="0.03055">
        <ele>893.2</ele>
        <time>2017-07-31T08:47:21Z</time>
      </trkpt>
      <trkpt lat="42.43415" lon="0.0305">
        <ele>893.5</ele>
        <time>2017-07-31T08:47:23Z</time>
      </trkpt>
      <trkpt lat="42.43413" lon="0.03045">
        <ele>893.8</ele>
        <time>2017-07-31T08:47:25Z</time>
      </trkpt>
      <trkpt lat="42.4341" lon="0.0304">
        <ele>894.1</ele>
        <time>2017-07-31T08:47:27Z</time>
      </trkpt>
      <trkpt lat="42.43408" lon="0.03035">
        <ele>894.4</ele>
        <time>2017-07-31T08:47:29Z</time>
      </trkpt>
      <trkpt lat="42.43405" lon="0.03029">
        <ele>894.7</ele>
        <time>2017-07-31T08:47:31Z</time>
      </trkpt>
      <trkpt lat="42.43403" lon="0.03024">
        <ele>895</ele>
        <time>2017-07-31T08:47:33Z</time>
      </trkpt>
      <trkpt lat="42.43401" lon="0.03019">
        <ele>895.3</ele>
        <time>2017-07-31T08:47:35Z</time>
      </trkpt>
      <trkpt lat="42.43398" lon="0.03014">
        <ele>895.6</ele>
        <time>2017-07-31T08:47:37Z</time>
      </trkpt>
      <trkpt lat="42.43396" lon="0.0301">
        <ele>895.8</ele>
        <time>2017-07-31T08:47:39Z</time>
      </trkpt>
      <trkpt lat="42.43393" lon="0.03005">
        <ele>896.1</ele>
        <time>2017-07-31T08:47:41Z</time>
      </trkpt>
      <trkpt lat="42.43391" lon="0.03">
        <ele>896.4</ele>
        <time>2017-07-31T08:47:43Z</time>
      </trkpt>
      <trkpt lat="42.43389" lon="0.02995">
        <ele>896.6</ele>
        <time>2017-07-31T08:47:45Z</time>
      </trkpt>
      <trkpt lat="42.43388" lon="0.02991">
        <ele>896.9</ele>
        <time>2017-07-31T08:47:47Z</time>
      </trkpt>
      <trkpt lat="42.43386" lon="0.02986">
        <ele>897.1</ele>
        <time>2017-07-31T08:47:49Z</time>
      </trkpt>
      <trkpt lat="42.43384" lon="0.02981">
        <ele>897.4</ele>
        <time>2017-07-31T08:47:51Z</time>
      </trkpt>
      <trkpt lat="42.43382" lon="0.02976">
        <ele>897.6</ele>
        <time>2017-07-31T08:47:53Z</time>
      </trkpt>
      <trkpt lat="42.43379" lon="0.02971">
        <ele>897.9</ele>
        <time>2017-07-31T08:47:55Z</time>
      </trkpt>
      <trkpt lat="42.43377" lon="0.02966">
        <ele>898.2</ele>
        <time>2017-07-31T08:47:57Z</time>
      </trkpt>
      <trkpt lat="42.43376" lon="0.02961">
        <ele>898.5</ele>
        <time>2017-07-31T08:47:59Z</time>
      </trkpt>
      <trkpt lat="42.43374" lon="0.02956">
        <ele>898.8</ele>
        <time>2017-07-31T08:48:01Z</time>
      </trkpt>
      <trkpt lat="42.43373" lon="0.0295">
        <ele>899.1</ele>
        <time>2017-07-31T08:48:03Z</time>
      </trkpt>
      <trkpt lat="42.43372" lon="0.02944">
        <ele>899.4</ele>
        <time>2017-07-31T08:48:05Z</time>
      </trkpt>
      <trkpt lat="42.43372" lon="0.02939">
        <ele>899.7</ele>
        <time>2017-07-31T08:48:07Z</time>
      </trkpt>
      <trkpt lat="42.43372" lon="0.02933">
        <ele>900</ele>
        <time>2017-07-31T08:48:09Z</time>
      </trkpt>
      <trkpt lat="42.43372" lon="0.02927">
        <ele>900.3</ele>
        <time>2017-07-31T08:48:11Z</time>
      </trkpt>
      <trkpt lat="42.43373" lon="0.02921">
        <ele>900.6</ele>
        <time>2017-07-31T08:48:13Z</time>
      </trkpt>
      <trkpt lat="42.43373" lon="0.02914">
        <ele>901</ele>
        <time>2017-07-31T08:48:15Z</time>
      </trkpt>
      <trkpt lat="42.43375" lon="0.02908">
        <ele>901.3</ele>
        <time>2017-07-31T08:48:17Z</time>
      </trkpt>
      <trkpt lat="42.43376" lon="0.02901">
        <ele>901.7</ele>
        <time>2017-07-31T08:48:19Z</time>
      </trkpt>
      <trkpt lat="42.43376" lon="0.02894">
        <ele>902</ele>
        <time>2017-07-31T08:48:21Z</time>
      </trkpt>
      <trkpt lat="42.43377" lon="0.02888">
        <ele>902.3</ele>
        <time>2017-07-31T08:48:23Z</time>
      </trkpt>
      <trkpt lat="42.43379" lon="0.02882">
        <ele>902.6</ele>
        <time>2017-07-31T08:48:25Z</time>
      </trkpt>
      <trkpt lat="42.43379" lon="0.02876">
        <ele>902.9</ele>
        <time>2017-07-31T08:48:27Z</time>
      </trkpt>
      <trkpt lat="42.4338" lon="0.0287">
        <ele>903.2</ele>
        <time>2017-07-31T08:48:29Z</time>
      </trkpt>
      <trkpt lat="42.4338" lon="0.02864">
        <ele>903.4</ele>
        <time>2017-07-31T08:48:31Z</time>
      </trkpt>
      <trkpt lat="42.43381" lon="0.02858">
        <ele>903.7</ele>
        <time>2017-07-31T08:48:33Z</time>
      </trkpt>
      <trkpt lat="42.43382" lon="0.02852">
        <ele>903.9</ele>
        <time>2017-07-31T08:48:35Z</time>
      </trkpt>
      <trkpt lat="42.43383" lon="0.02846">
        <ele>904.2</ele>
        <time>2017-07-31T08:48:37Z</time>
      </trkpt>
      <trkpt lat="42.43384" lon="0.0284">
        <ele>904.4</ele>
        <time>2017-07-31T08:48:39Z</time>
      </trkpt>
      <trkpt lat="42.43385" lon="0.02834">
        <ele>904.7</ele>
        <time>2017-07-31T08:48:41Z</time>
      </trkpt>
      <trkpt lat="42.43386" lon="0.02828">
        <ele>904.9</ele>
        <time>2017-07-31T08:48:43Z</time>
      </trkpt>
      <trkpt lat="42.43387" lon="0.02823">
        <ele>905.2</ele>
        <time>2017-07-31T08:48:45Z</time>
      </trkpt>
      <trkpt lat="42.43388" lon="0.02817">
        <ele>905.4</ele>
        <time>2017-07-31T08:48:47Z</time>
      </trkpt>
      <trkpt lat="42.43389" lon="0.02811">
        <ele>905.7</ele>
        <time>2017-07-31T08:48:49Z</time>
      </trkpt>
      <trkpt lat="42.4339" lon="0.02805">
        <ele>905.9</ele>
        <time>2017-07-31T08:48:51Z</time>
      </trkpt>
      <trkpt lat="42.4339" lon="0.02799">
        <ele>906.2</ele>
        <time>2017-07-31T08:48:53Z</time>
      </trkpt>
      <trkpt lat="42.43391" lon="0.02793">
        <ele>906.5</ele>
        <time>2017-07-31T08:48:55Z</time>
      </trkpt>
      <trkpt lat="42.43391" lon="0.02786">
        <ele>906.8</ele>
        <time>2017-07-31T08:48:57Z</time>
      </trkpt>
      <trkpt lat="42.4339" lon="0.02779">
        <ele>907.2</ele>
        <time>2017-07-31T08:48:59Z</time>
      </trkpt>
      <trkpt lat="42.4339" lon="0.02775">
        <ele>907.4</ele>
        <time>2017-07-31T08:49:00Z</time>
      </trkpt>
      <trkpt lat="42.4339" lon="0.02771">
        <ele>907.6</ele>
        <time>2017-07-31T08:49:01Z</time>
      </trkpt>
      <trkpt lat="42.43389" lon="0.02768">
        <ele>907.7</ele>
        <time>2017-07-31T08:49:02Z</time>
      </trkpt>
      <trkpt lat="42.43387" lon="0.02761">
        <ele>908.1</ele>
        <time>2017-07-31T08:49:04Z</time>
      </trkpt>
      <trkpt lat="42.43385" lon="0.02757">
        <ele>908.4</ele>
        <time>2017-07-31T08:49:06Z</time>
      </trkpt>
      <trkpt lat="42.43381" lon="0.02754">
        <ele>908.7</ele>
        <time>2017-07-31T08:49:08Z</time>
      </trkpt>
      <trkpt lat="42.43377" lon="0.02751">
        <ele>909</ele>
        <time>2017-07-31T08:49:10Z</time>
      </trkpt>
      <trkpt lat="42.43373" lon="0.02749">
        <ele>909.3</ele>
        <time>2017-07-31T08:49:12Z</time>
      </trkpt>
      <trkpt lat="42.43369" lon="0.02747">
        <ele>909.6</ele>
        <time>2017-07-31T08:49:14Z</time>
      </trkpt>
      <trkpt lat="42.43365" lon="0.02746">
        <ele>910</ele>
        <time>2017-07-31T08:49:16Z</time>
      </trkpt>
      <trkpt lat="42.4336" lon="0.02744">
        <ele>910.3</ele>
        <time>2017-07-31T08:49:18Z</time>
      </trkpt>
      <trkpt lat="42.43355" lon="0.02743">
        <ele>910.6</ele>
        <time>2017-07-31T08:49:20Z</time>
      </trkpt>
      <trkpt lat="42.43351" lon="0.02743">
        <ele>910.9</ele>
        <time>2017-07-31T08:49:22Z</time>
      </trkpt>
      <trkpt lat="42.43347" lon="0.02743">
        <ele>911.3</ele>
        <time>2017-07-31T08:49:24Z</time>
      </trkpt>
      <trkpt lat="42.43343" lon="0.02744">
        <ele>911.6</ele>
        <time>2017-07-31T08:49:26Z</time>
      </trkpt>
      <trkpt lat="42.43338" lon="0.02745">
        <ele>912</ele>
        <time>2017-07-31T08:49:28Z</time>
      </trkpt>
      <trkpt lat="42.43334" lon="0.02746">
        <ele>912.4</ele>
        <time>2017-07-31T08:49:30Z</time>
      </trkpt>
      <trkpt lat="42.4333" lon="0.02747">
        <ele>912.8</ele>
        <time>2017-07-31T08:49:32Z</time>
      </trkpt>
      <trkpt lat="42.43327" lon="0.02749">
        <ele>913.1</ele>
        <time>2017-07-31T08:49:34Z</time>
      </trkpt>
      <trkpt lat="42.43324" lon="0.02751">
        <ele>913.5</ele>
        <time>2017-07-31T08:49:36Z</time>
      </trkpt>
      <trkpt lat="42.4332" lon="0.02752">
        <ele>913.9</ele>
        <time>2017-07-31T08:49:38Z</time>
      </trkpt>
      <trkpt lat="42.43316" lon="0.02753">
        <ele>914.3</ele>
        <time>2017-07-31T08:49:40Z</time>
      </trkpt>
      <trkpt lat="42.43313" lon="0.02754">
        <ele>914.7</ele>
        <time>2017-07-31T08:49:42Z</time>
      </trkpt>
      <trkpt lat="42.43309" lon="0.02754">
        <ele>915.1</ele>
        <time>2017-07-31T08:49:44Z</time>
      </trkpt>
      <trkpt lat="42.43306" lon="0.02754">
        <ele>915.5</ele>
        <time>2017-07-31T08:49:46Z</time>
      </trkpt>
      <trkpt lat="42.43302" lon="0.02753">
        <ele>915.9</ele>
        <time>2017-07-31T08:49:48Z</time>
      </trkpt>
      <trkpt lat="42.43298" lon="0.02751">
        <ele>916.4</ele>
        <time>2017-07-31T08:49:50Z</time>
      </trkpt>
      <trkpt lat="42.43294" lon="0.0275">
        <ele>916.9</ele>
        <time>2017-07-31T08:49:52Z</time>
      </trkpt>
      <trkpt lat="42.43291" lon="0.02748">
        <ele>917.4</ele>
        <time>2017-07-31T08:49:54Z</time>
      </trkpt>
      <trkpt lat="42.43287" lon="0.02745">
        <ele>917.9</ele>
        <time>2017-07-31T08:49:56Z</time>
      </trkpt>
      <trkpt lat="42.43284" lon="0.02741">
        <ele>918.4</ele>
        <time>2017-07-31T08:49:58Z</time>
      </trkpt>
      <trkpt lat="42.43282" lon="0.02737">
        <ele>918.9</ele>
        <time>2017-07-31T08:50:00Z</time>
      </trkpt>
      <trkpt lat="42.4328" lon="0.02732">
        <ele>919.4</ele>
        <time>2017-07-31T08:50:02Z</time>
      </trkpt>
      <trkpt lat="42.43277" lon="0.02728">
        <ele>919.8</ele>
        <time>2017-07-31T08:50:04Z</time>
      </trkpt>
      <trkpt lat="42.43275" lon="0.02724">
        <ele>920.3</ele>
        <time>2017-07-31T08:50:06Z</time>
      </trkpt>
      <trkpt lat="42.43273" lon="0.0272">
        <ele>920.7</ele>
        <time>2017-07-31T08:50:08Z</time>
      </trkpt>
      <trkpt lat="42.43271" lon="0.02715">
        <ele>921.2</ele>
        <time>2017-07-31T08:50:10Z</time>
      </trkpt>
      <trkpt lat="42.43269" lon="0.02711">
        <ele>921.6</ele>
        <time>2017-07-31T08:50:12Z</time>
      </trkpt>
      <trkpt lat="42.43267" lon="0.02707">
        <ele>921.9</ele>
        <time>2017-07-31T08:50:14Z</time>
      </trkpt>
      <trkpt lat="42.43265" lon="0.02703">
        <ele>922.3</ele>
        <time>2017-07-31T08:50:16Z</time>
      </trkpt>
      <trkpt lat="42.43262" lon="0.02699">
        <ele>922.7</ele>
        <time>2017-07-31T08:50:18Z</time>
      </trkpt>
      <trkpt lat="42.4326" lon="0.02695">
        <ele>923</ele>
        <time>2017-07-31T08:50:20Z</time>
      </trkpt>
      <trkpt lat="42.43257" lon="0.02692">
        <ele>923.4</ele>
        <time>2017-07-31T08:50:22Z</time>
      </trkpt>
      <trkpt lat="42.43254" lon="0.02688">
        <ele>923.7</ele>
        <time>2017-07-31T08:50:24Z</time>
      </trkpt>
      <trkpt lat="42.43252" lon="0.02684">
        <ele>924</ele>
        <time>2017-07-31T08:50:26Z</time>
      </trkpt>
      <trkpt lat="42.4325" lon="0.0268">
        <ele>924.3</ele>
        <time>2017-07-31T08:50:28Z</time>
      </trkpt>
      <trkpt lat="42.43248" lon="0.02677">
        <ele>924.6</ele>
        <time>2017-07-31T08:50:30Z</time>
      </trkpt>
      <trkpt lat="42.43245" lon="0.02673">
        <ele>924.9</ele>
        <time>2017-07-31T08:50:32Z</time>
      </trkpt>
      <trkpt lat="42.43243" lon="0.02669">
        <ele>925.2</ele>
        <time>2017-07-31T08:50:34Z</time>
      </trkpt>
      <trkpt lat="42.43241" lon="0.02664">
        <ele>925.5</ele>
        <time>2017-07-31T08:50:36Z</time>
      </trkpt>
      <trkpt lat="42.4324" lon="0.0266">
        <ele>925.8</ele>
        <time>2017-07-31T08:50:38Z</time>
      </trkpt>
      <trkpt lat="42.43237" lon="0.02657">
        <ele>926</ele>
        <time>2017-07-31T08:50:40Z</time>
      </trkpt>
      <trkpt lat="42.43234" lon="0.02654">
        <ele>926.3</ele>
        <time>2017-07-31T08:50:42Z</time>
      </trkpt>
      <trkpt lat="42.43232" lon="0.0265">
        <ele>926.6</ele>
        <time>2017-07-31T08:50:44Z</time>
      </trkpt>
      <trkpt lat="42.43231" lon="0.02646">
        <ele>926.9</ele>
        <time>2017-07-31T08:50:46Z</time>
      </trkpt>
      <trkpt lat="42.43229" lon="0.02642">
        <ele>927.1</ele>
        <time>2017-07-31T08:50:48Z</time>
      </trkpt>
      <trkpt lat="42.43228" lon="0.02638">
        <ele>927.4</ele>
        <time>2017-07-31T08:50:50Z</time>
      </trkpt>
      <trkpt lat="42.43226" lon="0.02634">
        <ele>927.6</ele>
        <time>2017-07-31T08:50:52Z</time>
      </trkpt>
      <trkpt lat="42.43224" lon="0.02631">
        <ele>927.9</ele>
        <time>2017-07-31T08:50:54Z</time>
      </trkpt>
      <trkpt lat="42.43221" lon="0.02628">
        <ele>928.2</ele>
        <time>2017-07-31T08:50:56Z</time>
      </trkpt>
      <trkpt lat="42.43218" lon="0.02625">
        <ele>928.5</ele>
        <time>2017-07-31T08:50:58Z</time>
      </trkpt>
      <trkpt lat="42.43215" lon="0.02622">
        <ele>928.8</ele>
        <time>2017-07-31T08:51:00Z</time>
      </trkpt>
      <trkpt lat="42.43212" lon="0.0262">
        <ele>929</ele>
        <time>2017-07-31T08:51:02Z</time>
      </trkpt>
      <trkpt lat="42.43209" lon="0.02618">
        <ele>929.3</ele>
        <time>2017-07-31T08:51:04Z</time>
      </trkpt>
      <trkpt lat="42.43205" lon="0.02617">
        <ele>929.7</ele>
        <time>2017-07-31T08:51:06Z</time>
      </trkpt>
      <trkpt lat="42.43201" lon="0.02615">
        <ele>930</ele>
        <time>2017-07-31T08:51:08Z</time>
      </trkpt>
      <trkpt lat="42.43197" lon="0.02613">
        <ele>930.4</ele>
        <time>2017-07-31T08:51:10Z</time>
      </trkpt>
      <trkpt lat="42.43193" lon="0.02611">
        <ele>930.7</ele>
        <time>2017-07-31T08:51:12Z</time>
      </trkpt>
      <trkpt lat="42.43189" lon="0.02608">
        <ele>931.1</ele>
        <time>2017-07-31T08:51:14Z</time>
      </trkpt>
      <trkpt lat="42.43185" lon="0.02606">
        <ele>931.5</ele>
        <time>2017-07-31T08:51:16Z</time>
      </trkpt>
      <trkpt lat="42.4318" lon="0.02603">
        <ele>931.8</ele>
        <time>2017-07-31T08:51:18Z</time>
      </trkpt>
      <trkpt lat="42.43176" lon="0.02602">
        <ele>932.1</ele>
        <time>2017-07-31T08:51:20Z</time>
      </trkpt>
      <trkpt lat="42.43173" lon="0.026">
        <ele>932.4</ele>
        <time>2017-07-31T08:51:22Z</time>
      </trkpt>
      <trkpt lat="42.43169" lon="0.02598">
        <ele>932.6</ele>
        <time>2017-07-31T08:51:24Z</time>
      </trkpt>
      <trkpt lat="42.43165" lon="0.02596">
        <ele>932.9</ele>
        <time>2017-07-31T08:51:26Z</time>
      </trkpt>
      <trkpt lat="42.43162" lon="0.02594">
        <ele>933.1</ele>
        <time>2017-07-31T08:51:28Z</time>
      </trkpt>
      <trkpt lat="42.43158" lon="0.02591">
        <ele>933.3</ele>
        <time>2017-07-31T08:51:30Z</time>
      </trkpt>
      <trkpt lat="42.43154" lon="0.02589">
        <ele>933.5</ele>
        <time>2017-07-31T08:51:32Z</time>
      </trkpt>
      <trkpt lat="42.4315" lon="0.02587">
        <ele>933.7</ele>
        <time>2017-07-31T08:51:34Z</time>
      </trkpt>
      <trkpt lat="42.43146" lon="0.02585">
        <ele>933.9</ele>
        <time>2017-07-31T08:51:36Z</time>
      </trkpt>
      <trkpt lat="42.43142" lon="0.02584">
        <ele>934.1</ele>
        <time>2017-07-31T08:51:38Z</time>
      </trkpt>
      <trkpt lat="42.43138" lon="0.02582">
        <ele>934.3</ele>
        <time>2017-07-31T08:51:40Z</time>
      </trkpt>
      <trkpt lat="42.43135" lon="0.02579">
        <ele>934.5</ele>
        <time>2017-07-31T08:51:42Z</time>
      </trkpt>
      <trkpt lat="42.43131" lon="0.02576">
        <ele>934.7</ele>
        <time>2017-07-31T08:51:44Z</time>
      </trkpt>
      <trkpt lat="42.43127" lon="0.02573">
        <ele>934.9</ele>
        <time>2017-07-31T08:51:46Z</time>
      </trkpt>
      <trkpt lat="42.43124" lon="0.0257">
        <ele>935.1</ele>
        <time>2017-07-31T08:51:48Z</time>
      </trkpt>
      <trkpt lat="42.4312" lon="0.02567">
        <ele>935.3</ele>
        <time>2017-07-31T08:51:50Z</time>
      </trkpt>
      <trkpt lat="42.43116" lon="0.02564">
        <ele>935.5</ele>
        <time>2017-07-31T08:51:52Z</time>
      </trkpt>
      <trkpt lat="42.43113" lon="0.0256">
        <ele>935.7</ele>
        <time>2017-07-31T08:51:54Z</time>
      </trkpt>
      <trkpt lat="42.43109" lon="0.02556">
        <ele>935.9</ele>
        <time>2017-07-31T08:51:56Z</time>
      </trkpt>
      <trkpt lat="42.43106" lon="0.02552">
        <ele>936.2</ele>
        <time>2017-07-31T08:51:58Z</time>
      </trkpt>
      <trkpt lat="42.43103" lon="0.02548">
        <ele>936.4</ele>
        <time>2017-07-31T08:52:00Z</time>
      </trkpt>
      <trkpt lat="42.43101" lon="0.02543">
        <ele>936.6</ele>
        <time>2017-07-31T08:52:02Z</time>
      </trkpt>
      <trkpt lat="42.43098" lon="0.02538">
        <ele>936.8</ele>
        <time>2017-07-31T08:52:04Z</time>
      </trkpt>
      <trkpt lat="42.43096" lon="0.02533">
        <ele>937</ele>
        <time>2017-07-31T08:52:06Z</time>
      </trkpt>
      <trkpt lat="42.43094" lon="0.02527">
        <ele>937.2</ele>
        <time>2017-07-31T08:52:08Z</time>
      </trkpt>
      <trkpt lat="42.43092" lon="0.02522">
        <ele>937.4</ele>
        <time>2017-07-31T08:52:10Z</time>
      </trkpt>
      <trkpt lat="42.4309" lon="0.02516">
        <ele>937.5</ele>
        <time>2017-07-31T08:52:12Z</time>
      </trkpt>
      <trkpt lat="42.43087" lon="0.02511">
        <ele>937.7</ele>
        <time>2017-07-31T08:52:14Z</time>
      </trkpt>
      <trkpt lat="42.43085" lon="0.02506">
        <ele>937.8</ele>
        <time>2017-07-31T08:52:16Z</time>
      </trkpt>
      <trkpt lat="42.43083" lon="0.025">
        <ele>937.9</ele>
        <time>2017-07-31T08:52:18Z</time>
      </trkpt>
      <trkpt lat="42.43081" lon="0.02495">
        <ele>938.1</ele>
        <time>2017-07-31T08:52:20Z</time>
      </trkpt>
      <trkpt lat="42.43079" lon="0.02489">
        <ele>938.3</ele>
        <time>2017-07-31T08:52:22Z</time>
      </trkpt>
      <trkpt lat="42.43077" lon="0.02484">
        <ele>938.5</ele>
        <time>2017-07-31T08:52:24Z</time>
      </trkpt>
      <trkpt lat="42.43075" lon="0.02481">
        <ele>938.6</ele>
        <time>2017-07-31T08:52:26Z</time>
      </trkpt>
      <trkpt lat="42.43073" lon="0.02478">
        <ele>938.7</ele>
        <time>2017-07-31T08:52:28Z</time>
      </trkpt>
      <trkpt lat="42.43071" lon="0.02474">
        <ele>938.9</ele>
        <time>2017-07-31T08:52:31Z</time>
      </trkpt>
      <trkpt lat="42.43069" lon="0.02471">
        <ele>939</ele>
        <time>2017-07-31T08:52:33Z</time>
      </trkpt>
      <trkpt lat="42.43068" lon="0.02467">
        <ele>939.1</ele>
        <time>2017-07-31T08:52:35Z</time>
      </trkpt>
      <trkpt lat="42.43067" lon="0.02463">
        <ele>939.3</ele>
        <time>2017-07-31T08:52:37Z</time>
      </trkpt>
      <trkpt lat="42.43067" lon="0.02459">
        <ele>939.4</ele>
        <time>2017-07-31T08:52:39Z</time>
      </trkpt>
      <trkpt lat="42.43065" lon="0.02455">
        <ele>939.5</ele>
        <time>2017-07-31T08:52:42Z</time>
      </trkpt>
      <trkpt lat="42.43068" lon="0.02459">
        <ele>939.3</ele>
        <time>2017-07-31T08:55:59Z</time>
      </trkpt>
      <trkpt lat="42.43068" lon="0.02463">
        <ele>939.2</ele>
        <time>2017-07-31T08:56:01Z</time>
      </trkpt>
      <trkpt lat="42.43069" lon="0.0247">
        <ele>939</ele>
        <time>2017-07-31T08:56:03Z</time>
      </trkpt>
      <trkpt lat="42.43071" lon="0.02476">
        <ele>938.8</ele>
        <time>2017-07-31T08:56:05Z</time>
      </trkpt>
      <trkpt lat="42.43075" lon="0.02481">
        <ele>938.5</ele>
        <time>2017-07-31T08:56:07Z</time>
      </trkpt>
      <trkpt lat="42.43077" lon="0.02484">
        <ele>938.4</ele>
        <time>2017-07-31T08:56:09Z</time>
      </trkpt>
      <trkpt lat="42.43079" lon="0.02487">
        <ele>938.3</ele>
        <time>2017-07-31T08:56:23Z</time>
      </trkpt>
      <trkpt lat="42.43082" lon="0.02488">
        <ele>938.2</ele>
        <time>2017-07-31T08:56:31Z</time>
      </trkpt>
      <trkpt lat="42.43085" lon="0.02495">
        <ele>937.9</ele>
        <time>2017-07-31T08:56:49Z</time>
      </trkpt>
      <trkpt lat="42.43087" lon="0.02498">
        <ele>937.8</ele>
        <time>2017-07-31T08:56:53Z</time>
      </trkpt>
      <trkpt lat="42.4309" lon="0.025">
        <ele>937.7</ele>
        <time>2017-07-31T08:56:58Z</time>
      </trkpt>
      <trkpt lat="42.43092" lon="0.02502">
        <ele>937.6</ele>
        <time>2017-07-31T08:57:03Z</time>
      </trkpt>
      <trkpt lat="42.43094" lon="0.02505">
        <ele>937.6</ele>
        <time>2017-07-31T08:57:07Z</time>
      </trkpt>
      <trkpt lat="42.43096" lon="0.02508">
        <ele>937.5</ele>
        <time>2017-07-31T08:57:12Z</time>
      </trkpt>
      <trkpt lat="42.43098" lon="0.02511">
        <ele>937.3</ele>
        <time>2017-07-31T08:57:20Z</time>
      </trkpt>
      <trkpt lat="42.431" lon="0.02515">
        <ele>937.2</ele>
        <time>2017-07-31T08:57:26Z</time>
      </trkpt>
      <trkpt lat="42.43102" lon="0.02517">
        <ele>937.1</ele>
        <time>2017-07-31T08:57:31Z</time>
      </trkpt>
      <trkpt lat="42.43104" lon="0.02521">
        <ele>936.9</ele>
        <time>2017-07-31T08:57:35Z</time>
      </trkpt>
      <trkpt lat="42.43106" lon="0.02525">
        <ele>936.7</ele>
        <time>2017-07-31T08:57:38Z</time>
      </trkpt>
      <trkpt lat="42.43108" lon="0.02529">
        <ele>936.6</ele>
        <time>2017-07-31T08:57:41Z</time>
      </trkpt>
      <trkpt lat="42.4311" lon="0.02533">
        <ele>936.4</ele>
        <time>2017-07-31T08:57:45Z</time>
      </trkpt>
      <trkpt lat="42.43112" lon="0.02538">
        <ele>936.1</ele>
        <time>2017-07-31T08:57:47Z</time>
      </trkpt>
      <trkpt lat="42.43114" lon="0.02541">
        <ele>936</ele>
        <time>2017-07-31T08:57:48Z</time>
      </trkpt>
      <trkpt lat="42.43119" lon="0.02544">
        <ele>935.7</ele>
        <time>2017-07-31T08:57:50Z</time>
      </trkpt>
      <trkpt lat="42.43122" lon="0.02547">
        <ele>935.5</ele>
        <time>2017-07-31T08:57:52Z</time>
      </trkpt>
      <trkpt lat="42.43126" lon="0.02551">
        <ele>935.2</ele>
        <time>2017-07-31T08:57:54Z</time>
      </trkpt>
      <trkpt lat="42.4313" lon="0.02554">
        <ele>935</ele>
        <time>2017-07-31T08:57:56Z</time>
      </trkpt>
      <trkpt lat="42.43135" lon="0.02557">
        <ele>934.8</ele>
        <time>2017-07-31T08:57:58Z</time>
      </trkpt>
      <trkpt lat="42.43137" lon="0.02559">
        <ele>934.6</ele>
        <time>2017-07-31T08:57:59Z</time>
      </trkpt>
      <trkpt lat="42.4314" lon="0.02561">
        <ele>934.5</ele>
        <time>2017-07-31T08:58:00Z</time>
      </trkpt>
      <trkpt lat="42.43142" lon="0.02563">
        <ele>934.3</ele>
        <time>2017-07-31T08:58:01Z</time>
      </trkpt>
      <trkpt lat="42.43145" lon="0.02565">
        <ele>934.2</ele>
        <time>2017-07-31T08:58:02Z</time>
      </trkpt>
      <trkpt lat="42.43147" lon="0.02567">
        <ele>934.1</ele>
        <time>2017-07-31T08:58:03Z</time>
      </trkpt>
      <trkpt lat="42.43149" lon="0.02569">
        <ele>933.9</ele>
        <time>2017-07-31T08:58:04Z</time>
      </trkpt>
      <trkpt lat="42.43153" lon="0.02573">
        <ele>933.7</ele>
        <time>2017-07-31T08:58:06Z</time>
      </trkpt>
      <trkpt lat="42.43157" lon="0.02574">
        <ele>933.5</ele>
        <time>2017-07-31T08:58:08Z</time>
      </trkpt>
      <trkpt lat="42.4316" lon="0.02576">
        <ele>933.3</ele>
        <time>2017-07-31T08:58:10Z</time>
      </trkpt>
      <trkpt lat="42.43164" lon="0.02577">
        <ele>933.1</ele>
        <time>2017-07-31T08:58:12Z</time>
      </trkpt>
      <trkpt lat="42.43169" lon="0.02578">
        <ele>932.8</ele>
        <time>2017-07-31T08:58:14Z</time>
      </trkpt>
      <trkpt lat="42.43174" lon="0.0258">
        <ele>933.8</ele>
        <time>2017-07-31T08:58:16Z</time>
      </trkpt>
      <trkpt lat="42.43176" lon="0.02582">
        <ele>935.9</ele>
        <time>2017-07-31T08:58:17Z</time>
      </trkpt>
      <trkpt lat="42.4318" lon="0.02583">
        <ele>938</ele>
        <time>2017-07-31T08:58:19Z</time>
      </trkpt>
      <trkpt lat="42.43183" lon="0.02584">
        <ele>937.5</ele>
        <time>2017-07-31T08:58:21Z</time>
      </trkpt>
      <trkpt lat="42.43186" lon="0.02585">
        <ele>939.4</ele>
        <time>2017-07-31T08:58:23Z</time>
      </trkpt>
      <trkpt lat="42.4319" lon="0.02587">
        <ele>941</ele>
        <time>2017-07-31T08:58:25Z</time>
      </trkpt>
      <trkpt lat="42.43195" lon="0.02588">
        <ele>939.7</ele>
        <time>2017-07-31T08:58:27Z</time>
      </trkpt>
      <trkpt lat="42.43199" lon="0.02589">
        <ele>942.2</ele>
        <time>2017-07-31T08:58:29Z</time>
      </trkpt>
      <trkpt lat="42.43204" lon="0.0259">
        <ele>944.2</ele>
        <time>2017-07-31T08:58:31Z</time>
      </trkpt>
      <trkpt lat="42.43207" lon="0.02591">
        <ele>944</ele>
        <time>2017-07-31T08:58:32Z</time>
      </trkpt>
      <trkpt lat="42.43211" lon="0.02591">
        <ele>945.4</ele>
        <time>2017-07-31T08:58:34Z</time>
      </trkpt>
      <trkpt lat="42.43217" lon="0.02593">
        <ele>943.2</ele>
        <time>2017-07-31T08:58:36Z</time>
      </trkpt>
      <trkpt lat="42.43219" lon="0.02595">
        <ele>943.3</ele>
        <time>2017-07-31T08:58:37Z</time>
      </trkpt>
      <trkpt lat="42.43222" lon="0.02598">
        <ele>940.7</ele>
        <time>2017-07-31T08:58:38Z</time>
      </trkpt>
      <trkpt lat="42.43225" lon="0.02601">
        <ele>937.9</ele>
        <time>2017-07-31T08:58:39Z</time>
      </trkpt>
      <trkpt lat="42.43228" lon="0.02604">
        <ele>937.8</ele>
        <time>2017-07-31T08:58:40Z</time>
      </trkpt>
      <trkpt lat="42.4323" lon="0.02608">
        <ele>935.3</ele>
        <time>2017-07-31T08:58:41Z</time>
      </trkpt>
      <trkpt lat="42.43233" lon="0.02613">
        <ele>933.2</ele>
        <time>2017-07-31T08:58:42Z</time>
      </trkpt>
      <trkpt lat="42.43237" lon="0.02619">
        <ele>929.1</ele>
        <time>2017-07-31T08:58:43Z</time>
      </trkpt>
      <trkpt lat="42.4324" lon="0.02623">
        <ele>927.2</ele>
        <time>2017-07-31T08:58:44Z</time>
      </trkpt>
      <trkpt lat="42.43244" lon="0.02627">
        <ele>925.6</ele>
        <time>2017-07-31T08:58:45Z</time>
      </trkpt>
      <trkpt lat="42.43247" lon="0.0263">
        <ele>926.1</ele>
        <time>2017-07-31T08:58:46Z</time>
      </trkpt>
      <trkpt lat="42.43249" lon="0.02634">
        <ele>924.8</ele>
        <time>2017-07-31T08:58:47Z</time>
      </trkpt>
      <trkpt lat="42.43251" lon="0.02637">
        <ele>923.1</ele>
        <time>2017-07-31T08:58:48Z</time>
      </trkpt>
      <trkpt lat="42.43253" lon="0.02641">
        <ele>922.4</ele>
        <time>2017-07-31T08:58:49Z</time>
      </trkpt>
      <trkpt lat="42.43255" lon="0.02644">
        <ele>921.5</ele>
        <time>2017-07-31T08:58:50Z</time>
      </trkpt>
      <trkpt lat="42.43258" lon="0.02649">
        <ele>920.6</ele>
        <time>2017-07-31T08:58:52Z</time>
      </trkpt>
      <trkpt lat="42.43261" lon="0.02655">
        <ele>919.7</ele>
        <time>2017-07-31T08:58:54Z</time>
      </trkpt>
      <trkpt lat="42.43264" lon="0.02658">
        <ele>917.8</ele>
        <time>2017-07-31T08:58:56Z</time>
      </trkpt>
      <trkpt lat="42.43266" lon="0.02661">
        <ele>917.2</ele>
        <time>2017-07-31T08:59:06Z</time>
      </trkpt>
      <trkpt lat="42.43269" lon="0.02665">
        <ele>918</ele>
        <time>2017-07-31T08:59:08Z</time>
      </trkpt>
      <trkpt lat="42.43272" lon="0.02668">
        <ele>917.5</ele>
        <time>2017-07-31T08:59:10Z</time>
      </trkpt>
      <trkpt lat="42.43275" lon="0.02673">
        <ele>917</ele>
        <time>2017-07-31T08:59:12Z</time>
      </trkpt>
      <trkpt lat="42.43277" lon="0.02675">
        <ele>916.2</ele>
        <time>2017-07-31T08:59:13Z</time>
      </trkpt>
      <trkpt lat="42.43279" lon="0.02677">
        <ele>915.9</ele>
        <time>2017-07-31T08:59:14Z</time>
      </trkpt>
      <trkpt lat="42.43283" lon="0.02681">
        <ele>916</ele>
        <time>2017-07-31T08:59:16Z</time>
      </trkpt>
      <trkpt lat="42.43285" lon="0.02684">
        <ele>914</ele>
        <time>2017-07-31T08:59:17Z</time>
      </trkpt>
      <trkpt lat="42.43288" lon="0.02687">
        <ele>913.3</ele>
        <time>2017-07-31T08:59:18Z</time>
      </trkpt>
      <trkpt lat="42.4329" lon="0.02689">
        <ele>914.1</ele>
        <time>2017-07-31T08:59:19Z</time>
      </trkpt>
      <trkpt lat="42.43294" lon="0.02693">
        <ele>913.6</ele>
        <time>2017-07-31T08:59:21Z</time>
      </trkpt>
      <trkpt lat="42.43297" lon="0.02696">
        <ele>913.1</ele>
        <time>2017-07-31T08:59:23Z</time>
      </trkpt>
      <trkpt lat="42.433" lon="0.02699">
        <ele>913.9</ele>
        <time>2017-07-31T08:59:25Z</time>
      </trkpt>
      <trkpt lat="42.43304" lon="0.02704">
        <ele>911.4</ele>
        <time>2017-07-31T08:59:27Z</time>
      </trkpt>
      <trkpt lat="42.43306" lon="0.02707">
        <ele>912.1</ele>
        <time>2017-07-31T08:59:28Z</time>
      </trkpt>
      <trkpt lat="42.43309" lon="0.02709">
        <ele>909.9</ele>
        <time>2017-07-31T08:59:29Z</time>
      </trkpt>
      <trkpt lat="42.43314" lon="0.0271">
        <ele>911.8</ele>
        <time>2017-07-31T08:59:31Z</time>
      </trkpt>
      <trkpt lat="42.43317" lon="0.0271">
        <ele>912.7</ele>
        <time>2017-07-31T08:59:32Z</time>
      </trkpt>
      <trkpt lat="42.4332" lon="0.02709">
        <ele>913.7</ele>
        <time>2017-07-31T08:59:33Z</time>
      </trkpt>
      <trkpt lat="42.43323" lon="0.02709">
        <ele>914.6</ele>
        <time>2017-07-31T08:59:34Z</time>
      </trkpt>
      <trkpt lat="42.43326" lon="0.02709">
        <ele>915.4</ele>
        <time>2017-07-31T08:59:35Z</time>
      </trkpt>
      <trkpt lat="42.4333" lon="0.02709">
        <ele>916.2</ele>
        <time>2017-07-31T08:59:36Z</time>
      </trkpt>
      <trkpt lat="42.43334" lon="0.02709">
        <ele>916.8</ele>
        <time>2017-07-31T08:59:37Z</time>
      </trkpt>
      <trkpt lat="42.43338" lon="0.0271">
        <ele>918.2</ele>
        <time>2017-07-31T08:59:38Z</time>
      </trkpt>
      <trkpt lat="42.43342" lon="0.0271">
        <ele>918.6</ele>
        <time>2017-07-31T08:59:39Z</time>
      </trkpt>
      <trkpt lat="42.43346" lon="0.0271">
        <ele>918.9</ele>
        <time>2017-07-31T08:59:40Z</time>
      </trkpt>
      <trkpt lat="42.4335" lon="0.02711">
        <ele>919.3</ele>
        <time>2017-07-31T08:59:41Z</time>
      </trkpt>
      <trkpt lat="42.43354" lon="0.02711">
        <ele>919</ele>
        <time>2017-07-31T08:59:42Z</time>
      </trkpt>
      <trkpt lat="42.43358" lon="0.02711">
        <ele>918.5</ele>
        <time>2017-07-31T08:59:43Z</time>
      </trkpt>
      <trkpt lat="42.43363" lon="0.02712">
        <ele>917.3</ele>
        <time>2017-07-31T08:59:44Z</time>
      </trkpt>
      <trkpt lat="42.43367" lon="0.02712">
        <ele>916.4</ele>
        <time>2017-07-31T08:59:45Z</time>
      </trkpt>
      <trkpt lat="42.43371" lon="0.02711">
        <ele>915.3</ele>
        <time>2017-07-31T08:59:46Z</time>
      </trkpt>
      <trkpt lat="42.43375" lon="0.02711">
        <ele>914.2</ele>
        <time>2017-07-31T08:59:47Z</time>
      </trkpt>
      <trkpt lat="42.43378" lon="0.02711">
        <ele>913.1</ele>
        <time>2017-07-31T08:59:48Z</time>
      </trkpt>
      <trkpt lat="42.43382" lon="0.02712">
        <ele>911.1</ele>
        <time>2017-07-31T08:59:49Z</time>
      </trkpt>
      <trkpt lat="42.43386" lon="0.02714">
        <ele>908.4</ele>
        <time>2017-07-31T08:59:50Z</time>
      </trkpt>
      <trkpt lat="42.4339" lon="0.02715">
        <ele>907.6</ele>
        <time>2017-07-31T08:59:51Z</time>
      </trkpt>
      <trkpt lat="42.43393" lon="0.02715">
        <ele>906.9</ele>
        <time>2017-07-31T08:59:52Z</time>
      </trkpt>
      <trkpt lat="42.43397" lon="0.02715">
        <ele>906.3</ele>
        <time>2017-07-31T08:59:53Z</time>
      </trkpt>
      <trkpt lat="42.434" lon="0.02713">
        <ele>905.9</ele>
        <time>2017-07-31T08:59:54Z</time>
      </trkpt>
      <trkpt lat="42.43402" lon="0.02711">
        <ele>906.5</ele>
        <time>2017-07-31T08:59:55Z</time>
      </trkpt>
      <trkpt lat="42.43407" lon="0.02709">
        <ele>906.3</ele>
        <time>2017-07-31T08:59:57Z</time>
      </trkpt>
      <trkpt lat="42.43409" lon="0.02707">
        <ele>906.9</ele>
        <time>2017-07-31T08:59:58Z</time>
      </trkpt>
      <trkpt lat="42.43412" lon="0.02705">
        <ele>906.7</ele>
        <time>2017-07-31T08:59:59Z</time>
      </trkpt>
      <trkpt lat="42.43415" lon="0.02703">
        <ele>907.3</ele>
        <time>2017-07-31T09:00:01Z</time>
      </trkpt>
      <trkpt lat="42.43415" lon="0.02707">
        <ele>906.3</ele>
        <time>2017-07-31T09:00:10Z</time>
      </trkpt>
      <trkpt lat="42.43415" lon="0.02711">
        <ele>905.3</ele>
        <time>2017-07-31T09:00:13Z</time>
      </trkpt>
      <trkpt lat="42.43415" lon="0.02715">
        <ele>904.3</ele>
        <time>2017-07-31T09:00:17Z</time>
      </trkpt>
      <trkpt lat="42.43416" lon="0.02721">
        <ele>902.3</ele>
        <time>2017-07-31T09:00:19Z</time>
      </trkpt>
      <trkpt lat="42.43418" lon="0.02728">
        <ele>901.2</ele>
        <time>2017-07-31T09:00:21Z</time>
      </trkpt>
      <trkpt lat="42.4342" lon="0.02733">
        <ele>900.2</ele>
        <time>2017-07-31T09:00:23Z</time>
      </trkpt>
      <trkpt lat="42.43422" lon="0.02737">
        <ele>898.7</ele>
        <time>2017-07-31T09:00:24Z</time>
      </trkpt>
      <trkpt lat="42.43423" lon="0.0274">
        <ele>898.2</ele>
        <time>2017-07-31T09:00:25Z</time>
      </trkpt>
      <trkpt lat="42.43425" lon="0.02743">
        <ele>897.3</ele>
        <time>2017-07-31T09:00:26Z</time>
      </trkpt>
      <trkpt lat="42.43429" lon="0.02749">
        <ele>897.7</ele>
        <time>2017-07-31T09:00:28Z</time>
      </trkpt>
      <trkpt lat="42.43432" lon="0.02753">
        <ele>899.8</ele>
        <time>2017-07-31T09:00:30Z</time>
      </trkpt>
      <trkpt lat="42.43434" lon="0.02756">
        <ele>899.5</ele>
        <time>2017-07-31T09:00:32Z</time>
      </trkpt>
      <trkpt lat="42.43433" lon="0.02761">
        <ele>899.3</ele>
        <time>2017-07-31T09:00:34Z</time>
      </trkpt>
      <trkpt lat="42.43429" lon="0.02763">
        <ele>896.5</ele>
        <time>2017-07-31T09:00:36Z</time>
      </trkpt>
      <trkpt lat="42.43426" lon="0.02765">
        <ele>896.4</ele>
        <time>2017-07-31T09:00:37Z</time>
      </trkpt>
      <trkpt lat="42.43424" lon="0.02767">
        <ele>894.9</ele>
        <time>2017-07-31T09:00:38Z</time>
      </trkpt>
      <trkpt lat="42.43421" lon="0.02772">
        <ele>893.8</ele>
        <time>2017-07-31T09:00:40Z</time>
      </trkpt>
      <trkpt lat="42.43419" lon="0.02778">
        <ele>893.2</ele>
        <time>2017-07-31T09:00:42Z</time>
      </trkpt>
      <trkpt lat="42.43418" lon="0.02782">
        <ele>893.2</ele>
        <time>2017-07-31T09:00:43Z</time>
      </trkpt>
      <trkpt lat="42.43417" lon="0.02786">
        <ele>893</ele>
        <time>2017-07-31T09:00:44Z</time>
      </trkpt>
      <trkpt lat="42.43416" lon="0.02793">
        <ele>891.6</ele>
        <time>2017-07-31T09:00:46Z</time>
      </trkpt>
      <trkpt lat="42.43416" lon="0.02798">
        <ele>891</ele>
        <time>2017-07-31T09:00:48Z</time>
      </trkpt>
      <trkpt lat="42.43416" lon="0.02804">
        <ele>890.6</ele>
        <time>2017-07-31T09:00:50Z</time>
      </trkpt>
      <trkpt lat="42.43416" lon="0.0281">
        <ele>891.5</ele>
        <time>2017-07-31T09:00:52Z</time>
      </trkpt>
      <trkpt lat="42.43417" lon="0.02816">
        <ele>891.1</ele>
        <time>2017-07-31T09:00:54Z</time>
      </trkpt>
      <trkpt lat="42.43418" lon="0.02822">
        <ele>890.7</ele>
        <time>2017-07-31T09:00:56Z</time>
      </trkpt>
      <trkpt lat="42.43419" lon="0.02827">
        <ele>890.2</ele>
        <time>2017-07-31T09:00:58Z</time>
      </trkpt>
      <trkpt lat="42.4342" lon="0.02833">
        <ele>890.8</ele>
        <time>2017-07-31T09:01:00Z</time>
      </trkpt>
      <trkpt lat="42.43421" lon="0.02838">
        <ele>890.1</ele>
        <time>2017-07-31T09:01:02Z</time>
      </trkpt>
      <trkpt lat="42.43421" lon="0.02842">
        <ele>889.4</ele>
        <time>2017-07-31T09:01:06Z</time>
      </trkpt>
      <trkpt lat="42.43422" lon="0.02845">
        <ele>889.2</ele>
        <time>2017-07-31T09:01:10Z</time>
      </trkpt>
      <trkpt lat="42.43422" lon="0.02849">
        <ele>888.5</ele>
        <time>2017-07-31T09:01:13Z</time>
      </trkpt>
      <trkpt lat="42.43422" lon="0.02853">
        <ele>887.9</ele>
        <time>2017-07-31T09:01:17Z</time>
      </trkpt>
      <trkpt lat="42.43422" lon="0.02857">
        <ele>887.4</ele>
        <time>2017-07-31T09:01:23Z</time>
      </trkpt>
      <trkpt lat="42.43422" lon="0.02861">
        <ele>887.1</ele>
        <time>2017-07-31T09:01:25Z</time>
      </trkpt>
      <trkpt lat="42.43423" lon="0.02865">
        <ele>888.6</ele>
        <time>2017-07-31T09:01:27Z</time>
      </trkpt>
      <trkpt lat="42.43424" lon="0.02868">
        <ele>888.5</ele>
        <time>2017-07-31T09:01:29Z</time>
      </trkpt>
      <trkpt lat="42.43426" lon="0.02872">
        <ele>888.5</ele>
        <time>2017-07-31T09:01:31Z</time>
      </trkpt>
      <trkpt lat="42.43427" lon="0.02876">
        <ele>890.3</ele>
        <time>2017-07-31T09:01:33Z</time>
      </trkpt>
      <trkpt lat="42.43428" lon="0.02879">
        <ele>890.1</ele>
        <time>2017-07-31T09:01:35Z</time>
      </trkpt>
      <trkpt lat="42.43429" lon="0.02883">
        <ele>889.9</ele>
        <time>2017-07-31T09:01:37Z</time>
      </trkpt>
      <trkpt lat="42.43432" lon="0.02885">
        <ele>889.8</ele>
        <time>2017-07-31T09:01:43Z</time>
      </trkpt>
      <trkpt lat="42.43434" lon="0.02889">
        <ele>889.6</ele>
        <time>2017-07-31T09:01:48Z</time>
      </trkpt>
      <trkpt lat="42.43434" lon="0.02893">
        <ele>889.4</ele>
        <time>2017-07-31T09:01:52Z</time>
      </trkpt>
      <trkpt lat="42.43436" lon="0.02896">
        <ele>889.2</ele>
        <time>2017-07-31T09:01:57Z</time>
      </trkpt>
      <trkpt lat="42.43438" lon="0.029">
        <ele>889</ele>
        <time>2017-07-31T09:02:01Z</time>
      </trkpt>
      <trkpt lat="42.43438" lon="0.02905">
        <ele>888.8</ele>
        <time>2017-07-31T09:02:07Z</time>
      </trkpt>
      <trkpt lat="42.4344" lon="0.0291">
        <ele>888.6</ele>
        <time>2017-07-31T09:02:10Z</time>
      </trkpt>
      <trkpt lat="42.43441" lon="0.02914">
        <ele>888.4</ele>
        <time>2017-07-31T09:02:12Z</time>
      </trkpt>
      <trkpt lat="42.43443" lon="0.02917">
        <ele>888.3</ele>
        <time>2017-07-31T09:02:18Z</time>
      </trkpt>
      <trkpt lat="42.43445" lon="0.02919">
        <ele>888.1</ele>
        <time>2017-07-31T09:02:23Z</time>
      </trkpt>
      <trkpt lat="42.43447" lon="0.02923">
        <ele>887.9</ele>
        <time>2017-07-31T09:02:28Z</time>
      </trkpt>
      <trkpt lat="42.43447" lon="0.02927">
        <ele>887.7</ele>
        <time>2017-07-31T09:02:31Z</time>
      </trkpt>
      <trkpt lat="42.43447" lon="0.02931">
        <ele>887.6</ele>
        <time>2017-07-31T09:02:38Z</time>
      </trkpt>
      <trkpt lat="42.43449" lon="0.02934">
        <ele>887.4</ele>
        <time>2017-07-31T09:02:40Z</time>
      </trkpt>
      <trkpt lat="42.43451" lon="0.02937">
        <ele>887.2</ele>
        <time>2017-07-31T09:02:42Z</time>
      </trkpt>
      <trkpt lat="42.43453" lon="0.0294">
        <ele>887.1</ele>
        <time>2017-07-31T09:02:44Z</time>
      </trkpt>
      <trkpt lat="42.43456" lon="0.02942">
        <ele>886.9</ele>
        <time>2017-07-31T09:02:49Z</time>
      </trkpt>
      <trkpt lat="42.43458" lon="0.02945">
        <ele>886.7</ele>
        <time>2017-07-31T09:02:53Z</time>
      </trkpt>
      <trkpt lat="42.4346" lon="0.02947">
        <ele>886.5</ele>
        <time>2017-07-31T09:02:57Z</time>
      </trkpt>
      <trkpt lat="42.43463" lon="0.0295">
        <ele>886.3</ele>
        <time>2017-07-31T09:03:00Z</time>
      </trkpt>
      <trkpt lat="42.43465" lon="0.02953">
        <ele>886.2</ele>
        <time>2017-07-31T09:03:04Z</time>
      </trkpt>
      <trkpt lat="42.43468" lon="0.02956">
        <ele>886</ele>
        <time>2017-07-31T09:03:08Z</time>
      </trkpt>
      <trkpt lat="42.4347" lon="0.02957">
        <ele>885.8</ele>
        <time>2017-07-31T09:03:12Z</time>
      </trkpt>
      <trkpt lat="42.43473" lon="0.0296">
        <ele>885.6</ele>
        <time>2017-07-31T09:03:16Z</time>
      </trkpt>
      <trkpt lat="42.43476" lon="0.02963">
        <ele>885.4</ele>
        <time>2017-07-31T09:03:19Z</time>
      </trkpt>
      <trkpt lat="42.43478" lon="0.02965">
        <ele>885.2</ele>
        <time>2017-07-31T09:03:21Z</time>
      </trkpt>
      <trkpt lat="42.43482" lon="0.02967">
        <ele>885</ele>
        <time>2017-07-31T09:03:23Z</time>
      </trkpt>
      <trkpt lat="42.43485" lon="0.02969">
        <ele>884.8</ele>
        <time>2017-07-31T09:03:25Z</time>
      </trkpt>
      <trkpt lat="42.43486" lon="0.02973">
        <ele>884.7</ele>
        <time>2017-07-31T09:03:40Z</time>
      </trkpt>
      <trkpt lat="42.43488" lon="0.02975">
        <ele>884.5</ele>
        <time>2017-07-31T09:03:44Z</time>
      </trkpt>
      <trkpt lat="42.43491" lon="0.02976">
        <ele>884.3</ele>
        <time>2017-07-31T09:03:48Z</time>
      </trkpt>
      <trkpt lat="42.43495" lon="0.02977">
        <ele>884.1</ele>
        <time>2017-07-31T09:03:51Z</time>
      </trkpt>
      <trkpt lat="42.43499" lon="0.02978">
        <ele>883.9</ele>
        <time>2017-07-31T09:03:54Z</time>
      </trkpt>
      <trkpt lat="42.43502" lon="0.02978">
        <ele>883.7</ele>
        <time>2017-07-31T09:03:56Z</time>
      </trkpt>
      <trkpt lat="42.43506" lon="0.02978">
        <ele>883.5</ele>
        <time>2017-07-31T09:03:58Z</time>
      </trkpt>
      <trkpt lat="42.4351" lon="0.02978">
        <ele>883.3</ele>
        <time>2017-07-31T09:04:00Z</time>
      </trkpt>
      <trkpt lat="42.43514" lon="0.02978">
        <ele>883</ele>
        <time>2017-07-31T09:04:02Z</time>
      </trkpt>
      <trkpt lat="42.43518" lon="0.02979">
        <ele>882.8</ele>
        <time>2017-07-31T09:04:04Z</time>
      </trkpt>
      <trkpt lat="42.43523" lon="0.02982">
        <ele>882.5</ele>
        <time>2017-07-31T09:04:06Z</time>
      </trkpt>
      <trkpt lat="42.43527" lon="0.02985">
        <ele>882.2</ele>
        <time>2017-07-31T09:04:08Z</time>
      </trkpt>
      <trkpt lat="42.43532" lon="0.02987">
        <ele>881.9</ele>
        <time>2017-07-31T09:04:10Z</time>
      </trkpt>
      <trkpt lat="42.43536" lon="0.0299">
        <ele>881.7</ele>
        <time>2017-07-31T09:04:12Z</time>
      </trkpt>
      <trkpt lat="42.43538" lon="0.02993">
        <ele>881.5</ele>
        <time>2017-07-31T09:04:14Z</time>
      </trkpt>
      <trkpt lat="42.43539" lon="0.02997">
        <ele>881.3</ele>
        <time>2017-07-31T09:04:21Z</time>
      </trkpt>
      <trkpt lat="42.4354" lon="0.03">
        <ele>881.1</ele>
        <time>2017-07-31T09:04:25Z</time>
      </trkpt>
      <trkpt lat="42.43543" lon="0.03004">
        <ele>880.9</ele>
        <time>2017-07-31T09:04:29Z</time>
      </trkpt>
      <trkpt lat="42.43544" lon="0.03007">
        <ele>880.8</ele>
        <time>2017-07-31T09:04:35Z</time>
      </trkpt>
      <trkpt lat="42.43547" lon="0.0301">
        <ele>880.6</ele>
        <time>2017-07-31T09:04:37Z</time>
      </trkpt>
      <trkpt lat="42.43551" lon="0.03012">
        <ele>880.3</ele>
        <time>2017-07-31T09:04:39Z</time>
      </trkpt>
      <trkpt lat="42.43554" lon="0.03014">
        <ele>880.1</ele>
        <time>2017-07-31T09:04:41Z</time>
      </trkpt>
      <trkpt lat="42.43556" lon="0.03017">
        <ele>879.9</ele>
        <time>2017-07-31T09:04:43Z</time>
      </trkpt>
      <trkpt lat="42.4356" lon="0.03019">
        <ele>879.7</ele>
        <time>2017-07-31T09:04:45Z</time>
      </trkpt>
      <trkpt lat="42.43564" lon="0.03019">
        <ele>879.5</ele>
        <time>2017-07-31T09:04:47Z</time>
      </trkpt>
      <trkpt lat="42.43567" lon="0.03019">
        <ele>879.3</ele>
        <time>2017-07-31T09:04:49Z</time>
      </trkpt>
      <trkpt lat="42.4357" lon="0.03019">
        <ele>879.1</ele>
        <time>2017-07-31T09:04:51Z</time>
      </trkpt>
      <trkpt lat="42.43574" lon="0.0302">
        <ele>878.9</ele>
        <time>2017-07-31T09:04:53Z</time>
      </trkpt>
      <trkpt lat="42.43578" lon="0.03021">
        <ele>878.7</ele>
        <time>2017-07-31T09:04:55Z</time>
      </trkpt>
      <trkpt lat="42.43582" lon="0.03023">
        <ele>878.4</ele>
        <time>2017-07-31T09:04:57Z</time>
      </trkpt>
      <trkpt lat="42.43585" lon="0.03024">
        <ele>878.2</ele>
        <time>2017-07-31T09:04:58Z</time>
      </trkpt>
      <trkpt lat="42.4359" lon="0.03025">
        <ele>878</ele>
        <time>2017-07-31T09:05:00Z</time>
      </trkpt>
      <trkpt lat="42.43593" lon="0.03027">
        <ele>877.8</ele>
        <time>2017-07-31T09:05:02Z</time>
      </trkpt>
      <trkpt lat="42.43596" lon="0.0303">
        <ele>877.5</ele>
        <time>2017-07-31T09:05:04Z</time>
      </trkpt>
      <trkpt lat="42.43598" lon="0.03034">
        <ele>877.4</ele>
        <time>2017-07-31T09:05:07Z</time>
      </trkpt>
      <trkpt lat="42.436" lon="0.03037">
        <ele>877.2</ele>
        <time>2017-07-31T09:05:09Z</time>
      </trkpt>
      <trkpt lat="42.43603" lon="0.03041">
        <ele>877</ele>
        <time>2017-07-31T09:05:11Z</time>
      </trkpt>
      <trkpt lat="42.43604" lon="0.03045">
        <ele>876.8</ele>
        <time>2017-07-31T09:05:13Z</time>
      </trkpt>
      <trkpt lat="42.43604" lon="0.0305">
        <ele>876.6</ele>
        <time>2017-07-31T09:05:15Z</time>
      </trkpt>
      <trkpt lat="42.43604" lon="0.03054">
        <ele>876.4</ele>
        <time>2017-07-31T09:05:19Z</time>
      </trkpt>
      <trkpt lat="42.43606" lon="0.03058">
        <ele>876.2</ele>
        <time>2017-07-31T09:05:22Z</time>
      </trkpt>
      <trkpt lat="42.4361" lon="0.0306">
        <ele>875.9</ele>
        <time>2017-07-31T09:05:24Z</time>
      </trkpt>
      <trkpt lat="42.43613" lon="0.03061">
        <ele>875.8</ele>
        <time>2017-07-31T09:05:25Z</time>
      </trkpt>
      <trkpt lat="42.43616" lon="0.03062">
        <ele>875.6</ele>
        <time>2017-07-31T09:05:26Z</time>
      </trkpt>
      <trkpt lat="42.43619" lon="0.03063">
        <ele>875.4</ele>
        <time>2017-07-31T09:05:27Z</time>
      </trkpt>
      <trkpt lat="42.43623" lon="0.03067">
        <ele>875.1</ele>
        <time>2017-07-31T09:05:29Z</time>
      </trkpt>
      <trkpt lat="42.43625" lon="0.03072">
        <ele>874.9</ele>
        <time>2017-07-31T09:05:31Z</time>
      </trkpt>
      <trkpt lat="42.43626" lon="0.03077">
        <ele>874.7</ele>
        <time>2017-07-31T09:05:33Z</time>
      </trkpt>
      <trkpt lat="42.43627" lon="0.03082">
        <ele>874.4</ele>
        <time>2017-07-31T09:05:35Z</time>
      </trkpt>
      <trkpt lat="42.43627" lon="0.03088">
        <ele>874.2</ele>
        <time>2017-07-31T09:05:37Z</time>
      </trkpt>
      <trkpt lat="42.43628" lon="0.03092">
        <ele>874</ele>
        <time>2017-07-31T09:05:39Z</time>
      </trkpt>
      <trkpt lat="42.43629" lon="0.03096">
        <ele>873.8</ele>
        <time>2017-07-31T09:05:41Z</time>
      </trkpt>
      <trkpt lat="42.43631" lon="0.03099">
        <ele>873.7</ele>
        <time>2017-07-31T09:05:43Z</time>
      </trkpt>
      <trkpt lat="42.43632" lon="0.03102">
        <ele>873.5</ele>
        <time>2017-07-31T09:05:45Z</time>
      </trkpt>
      <trkpt lat="42.43635" lon="0.03105">
        <ele>873.3</ele>
        <time>2017-07-31T09:05:47Z</time>
      </trkpt>
      <trkpt lat="42.43638" lon="0.03109">
        <ele>873.1</ele>
        <time>2017-07-31T09:05:50Z</time>
      </trkpt>
      <trkpt lat="42.4364" lon="0.03113">
        <ele>872.9</ele>
        <time>2017-07-31T09:05:52Z</time>
      </trkpt>
      <trkpt lat="42.43642" lon="0.03117">
        <ele>872.7</ele>
        <time>2017-07-31T09:05:54Z</time>
      </trkpt>
      <trkpt lat="42.43644" lon="0.03121">
        <ele>872.5</ele>
        <time>2017-07-31T09:05:56Z</time>
      </trkpt>
      <trkpt lat="42.43644" lon="0.03124">
        <ele>872.3</ele>
        <time>2017-07-31T09:06:01Z</time>
      </trkpt>
      <trkpt lat="42.43645" lon="0.03128">
        <ele>872.1</ele>
        <time>2017-07-31T09:06:05Z</time>
      </trkpt>
      <trkpt lat="42.43646" lon="0.03132">
        <ele>872</ele>
        <time>2017-07-31T09:06:11Z</time>
      </trkpt>
      <trkpt lat="42.43648" lon="0.03134">
        <ele>871.8</ele>
        <time>2017-07-31T09:06:15Z</time>
      </trkpt>
      <trkpt lat="42.43651" lon="0.03136">
        <ele>871.6</ele>
        <time>2017-07-31T09:06:19Z</time>
      </trkpt>
      <trkpt lat="42.43652" lon="0.0314">
        <ele>871.5</ele>
        <time>2017-07-31T09:06:23Z</time>
      </trkpt>
      <trkpt lat="42.43654" lon="0.03143">
        <ele>871.3</ele>
        <time>2017-07-31T09:06:27Z</time>
      </trkpt>
      <trkpt lat="42.43656" lon="0.03146">
        <ele>871.1</ele>
        <time>2017-07-31T09:06:32Z</time>
      </trkpt>
      <trkpt lat="42.43656" lon="0.0315">
        <ele>871</ele>
        <time>2017-07-31T09:06:36Z</time>
      </trkpt>
      <trkpt lat="42.43658" lon="0.03153">
        <ele>870.8</ele>
        <time>2017-07-31T09:06:40Z</time>
      </trkpt>
      <trkpt lat="42.4366" lon="0.03156">
        <ele>870.6</ele>
        <time>2017-07-31T09:06:44Z</time>
      </trkpt>
      <trkpt lat="42.43662" lon="0.03159">
        <ele>870.5</ele>
        <time>2017-07-31T09:06:49Z</time>
      </trkpt>
      <trkpt lat="42.43663" lon="0.03162">
        <ele>870.3</ele>
        <time>2017-07-31T09:06:53Z</time>
      </trkpt>
      <trkpt lat="42.43665" lon="0.03166">
        <ele>870.1</ele>
        <time>2017-07-31T09:06:57Z</time>
      </trkpt>
      <trkpt lat="42.43667" lon="0.03169">
        <ele>869.9</ele>
        <time>2017-07-31T09:07:03Z</time>
      </trkpt>
      <trkpt lat="42.43669" lon="0.03172">
        <ele>869.8</ele>
        <time>2017-07-31T09:07:05Z</time>
      </trkpt>
      <trkpt lat="42.43671" lon="0.03175">
        <ele>869.6</ele>
        <time>2017-07-31T09:07:07Z</time>
      </trkpt>
      <trkpt lat="42.43674" lon="0.03179">
        <ele>869.3</ele>
        <time>2017-07-31T09:07:09Z</time>
      </trkpt>
      <trkpt lat="42.43677" lon="0.03183">
        <ele>869.1</ele>
        <time>2017-07-31T09:07:11Z</time>
      </trkpt>
      <trkpt lat="42.43681" lon="0.03187">
        <ele>868.8</ele>
        <time>2017-07-31T09:07:13Z</time>
      </trkpt>
      <trkpt lat="42.43684" lon="0.0319">
        <ele>868.6</ele>
        <time>2017-07-31T09:07:15Z</time>
      </trkpt>
      <trkpt lat="42.43688" lon="0.03192">
        <ele>868.4</ele>
        <time>2017-07-31T09:07:17Z</time>
      </trkpt>
      <trkpt lat="42.43692" lon="0.03196">
        <ele>868.1</ele>
        <time>2017-07-31T09:07:19Z</time>
      </trkpt>
      <trkpt lat="42.43696" lon="0.03199">
        <ele>867.8</ele>
        <time>2017-07-31T09:07:21Z</time>
      </trkpt>
      <trkpt lat="42.437" lon="0.03201">
        <ele>867.5</ele>
        <time>2017-07-31T09:07:23Z</time>
      </trkpt>
      <trkpt lat="42.43705" lon="0.03203">
        <ele>867.3</ele>
        <time>2017-07-31T09:07:25Z</time>
      </trkpt>
      <trkpt lat="42.4371" lon="0.03204">
        <ele>867</ele>
        <time>2017-07-31T09:07:27Z</time>
      </trkpt>
      <trkpt lat="42.43714" lon="0.03204">
        <ele>866.7</ele>
        <time>2017-07-31T09:07:29Z</time>
      </trkpt>
      <trkpt lat="42.43719" lon="0.03204">
        <ele>866.5</ele>
        <time>2017-07-31T09:07:31Z</time>
      </trkpt>
      <trkpt lat="42.43722" lon="0.03205">
        <ele>866.3</ele>
        <time>2017-07-31T09:07:33Z</time>
      </trkpt>
      <trkpt lat="42.43726" lon="0.03207">
        <ele>866</ele>
        <time>2017-07-31T09:07:35Z</time>
      </trkpt>
      <trkpt lat="42.4373" lon="0.03207">
        <ele>865.8</ele>
        <time>2017-07-31T09:07:37Z</time>
      </trkpt>
      <trkpt lat="42.43734" lon="0.03207">
        <ele>865.6</ele>
        <time>2017-07-31T09:07:39Z</time>
      </trkpt>
      <trkpt lat="42.43738" lon="0.03206">
        <ele>865.4</ele>
        <time>2017-07-31T09:07:41Z</time>
      </trkpt>
      <trkpt lat="42.43742" lon="0.03207">
        <ele>865.1</ele>
        <time>2017-07-31T09:07:43Z</time>
      </trkpt>
      <trkpt lat="42.43745" lon="0.03207">
        <ele>864.9</ele>
        <time>2017-07-31T09:07:45Z</time>
      </trkpt>
      <trkpt lat="42.43749" lon="0.03207">
        <ele>864.7</ele>
        <time>2017-07-31T09:07:47Z</time>
      </trkpt>
      <trkpt lat="42.43752" lon="0.03207">
        <ele>864.5</ele>
        <time>2017-07-31T09:07:49Z</time>
      </trkpt>
      <trkpt lat="42.43756" lon="0.03207">
        <ele>864.3</ele>
        <time>2017-07-31T09:07:51Z</time>
      </trkpt>
      <trkpt lat="42.43759" lon="0.03208">
        <ele>864.1</ele>
        <time>2017-07-31T09:07:53Z</time>
      </trkpt>
      <trkpt lat="42.43762" lon="0.03209">
        <ele>863.9</ele>
        <time>2017-07-31T09:07:55Z</time>
      </trkpt>
      <trkpt lat="42.43765" lon="0.0321">
        <ele>863.8</ele>
        <time>2017-07-31T09:07:57Z</time>
      </trkpt>
      <trkpt lat="42.43769" lon="0.03211">
        <ele>863.5</ele>
        <time>2017-07-31T09:08:00Z</time>
      </trkpt>
      <trkpt lat="42.43771" lon="0.03214">
        <ele>863.4</ele>
        <time>2017-07-31T09:08:02Z</time>
      </trkpt>
      <trkpt lat="42.43774" lon="0.03217">
        <ele>863.1</ele>
        <time>2017-07-31T09:08:04Z</time>
      </trkpt>
      <trkpt lat="42.43778" lon="0.03219">
        <ele>862.9</ele>
        <time>2017-07-31T09:08:06Z</time>
      </trkpt>
      <trkpt lat="42.43781" lon="0.03219">
        <ele>862.7</ele>
        <time>2017-07-31T09:08:08Z</time>
      </trkpt>
      <trkpt lat="42.43785" lon="0.03221">
        <ele>862.5</ele>
        <time>2017-07-31T09:08:10Z</time>
      </trkpt>
      <trkpt lat="42.43788" lon="0.03223">
        <ele>862.3</ele>
        <time>2017-07-31T09:08:12Z</time>
      </trkpt>
      <trkpt lat="42.43793" lon="0.03225">
        <ele>862</ele>
        <time>2017-07-31T09:08:14Z</time>
      </trkpt>
      <trkpt lat="42.43797" lon="0.03228">
        <ele>861.7</ele>
        <time>2017-07-31T09:08:16Z</time>
      </trkpt>
      <trkpt lat="42.43802" lon="0.03231">
        <ele>861.4</ele>
        <time>2017-07-31T09:08:18Z</time>
      </trkpt>
      <trkpt lat="42.43806" lon="0.03235">
        <ele>861.2</ele>
        <time>2017-07-31T09:08:20Z</time>
      </trkpt>
      <trkpt lat="42.4381" lon="0.03239">
        <ele>860.9</ele>
        <time>2017-07-31T09:08:22Z</time>
      </trkpt>
      <trkpt lat="42.43812" lon="0.03241">
        <ele>860.7</ele>
        <time>2017-07-31T09:08:23Z</time>
      </trkpt>
      <trkpt lat="42.43816" lon="0.03242">
        <ele>860.5</ele>
        <time>2017-07-31T09:08:24Z</time>
      </trkpt>
      <trkpt lat="42.4382" lon="0.03242">
        <ele>860.3</ele>
        <time>2017-07-31T09:08:25Z</time>
      </trkpt>
      <trkpt lat="42.43824" lon="0.03241">
        <ele>860</ele>
        <time>2017-07-31T09:08:27Z</time>
      </trkpt>
      <trkpt lat="42.43827" lon="0.03239">
        <ele>859.8</ele>
        <time>2017-07-31T09:08:29Z</time>
      </trkpt>
      <trkpt lat="42.4383" lon="0.03239">
        <ele>859.6</ele>
        <time>2017-07-31T09:08:31Z</time>
      </trkpt>
      <trkpt lat="42.43834" lon="0.03239">
        <ele>859.4</ele>
        <time>2017-07-31T09:08:33Z</time>
      </trkpt>
      <trkpt lat="42.43837" lon="0.03239">
        <ele>859.2</ele>
        <time>2017-07-31T09:08:35Z</time>
      </trkpt>
      <trkpt lat="42.43841" lon="0.03239">
        <ele>859</ele>
        <time>2017-07-31T09:08:37Z</time>
      </trkpt>
      <trkpt lat="42.43844" lon="0.03239">
        <ele>858.8</ele>
        <time>2017-07-31T09:08:39Z</time>
      </trkpt>
      <trkpt lat="42.43848" lon="0.03238">
        <ele>858.6</ele>
        <time>2017-07-31T09:08:41Z</time>
      </trkpt>
      <trkpt lat="42.43851" lon="0.0324">
        <ele>858.5</ele>
        <time>2017-07-31T09:08:43Z</time>
      </trkpt>
      <trkpt lat="42.43854" lon="0.03243">
        <ele>858.3</ele>
        <time>2017-07-31T09:08:45Z</time>
      </trkpt>
      <trkpt lat="42.43856" lon="0.03247">
        <ele>858</ele>
        <time>2017-07-31T09:08:47Z</time>
      </trkpt>
      <trkpt lat="42.4386" lon="0.03251">
        <ele>857.7</ele>
        <time>2017-07-31T09:08:49Z</time>
      </trkpt>
      <trkpt lat="42.43863" lon="0.03254">
        <ele>857.5</ele>
        <time>2017-07-31T09:08:51Z</time>
      </trkpt>
      <trkpt lat="42.43865" lon="0.03256">
        <ele>857.4</ele>
        <time>2017-07-31T09:08:53Z</time>
      </trkpt>
      <trkpt lat="42.43868" lon="0.03258">
        <ele>857.2</ele>
        <time>2017-07-31T09:08:55Z</time>
      </trkpt>
      <trkpt lat="42.4387" lon="0.0326">
        <ele>857</ele>
        <time>2017-07-31T09:08:57Z</time>
      </trkpt>
      <trkpt lat="42.43872" lon="0.03264">
        <ele>856.8</ele>
        <time>2017-07-31T09:08:59Z</time>
      </trkpt>
      <trkpt lat="42.43874" lon="0.03269">
        <ele>856.6</ele>
        <time>2017-07-31T09:09:01Z</time>
      </trkpt>
      <trkpt lat="42.43876" lon="0.03274">
        <ele>856.4</ele>
        <time>2017-07-31T09:09:03Z</time>
      </trkpt>
      <trkpt lat="42.43878" lon="0.03278">
        <ele>856.1</ele>
        <time>2017-07-31T09:09:05Z</time>
      </trkpt>
      <trkpt lat="42.43879" lon="0.03282">
        <ele>856</ele>
        <time>2017-07-31T09:09:07Z</time>
      </trkpt>
      <trkpt lat="42.43881" lon="0.03287">
        <ele>855.7</ele>
        <time>2017-07-31T09:09:09Z</time>
      </trkpt>
      <trkpt lat="42.43883" lon="0.03294">
        <ele>855.4</ele>
        <time>2017-07-31T09:09:11Z</time>
      </trkpt>
      <trkpt lat="42.43883" lon="0.03297">
        <ele>855.3</ele>
        <time>2017-07-31T09:09:12Z</time>
      </trkpt>
      <trkpt lat="42.43884" lon="0.03301">
        <ele>855.1</ele>
        <time>2017-07-31T09:09:13Z</time>
      </trkpt>
      <trkpt lat="42.43886" lon="0.03305">
        <ele>854.9</ele>
        <time>2017-07-31T09:09:14Z</time>
      </trkpt>
      <trkpt lat="42.43888" lon="0.0331">
        <ele>854.7</ele>
        <time>2017-07-31T09:09:16Z</time>
      </trkpt>
      <trkpt lat="42.43891" lon="0.03316">
        <ele>854.4</ele>
        <time>2017-07-31T09:09:18Z</time>
      </trkpt>
      <trkpt lat="42.43894" lon="0.0332">
        <ele>854.1</ele>
        <time>2017-07-31T09:09:20Z</time>
      </trkpt>
      <trkpt lat="42.43896" lon="0.03323">
        <ele>853.9</ele>
        <time>2017-07-31T09:09:22Z</time>
      </trkpt>
      <trkpt lat="42.43899" lon="0.03329">
        <ele>853.6</ele>
        <time>2017-07-31T09:09:24Z</time>
      </trkpt>
      <trkpt lat="42.439" lon="0.03333">
        <ele>853.5</ele>
        <time>2017-07-31T09:09:25Z</time>
      </trkpt>
      <trkpt lat="42.43903" lon="0.03338">
        <ele>853.2</ele>
        <time>2017-07-31T09:09:27Z</time>
      </trkpt>
      <trkpt lat="42.43907" lon="0.03339">
        <ele>852.9</ele>
        <time>2017-07-31T09:09:29Z</time>
      </trkpt>
      <trkpt lat="42.43911" lon="0.03338">
        <ele>852.7</ele>
        <time>2017-07-31T09:09:32Z</time>
      </trkpt>
      <trkpt lat="42.43915" lon="0.03339">
        <ele>852.5</ele>
        <time>2017-07-31T09:09:35Z</time>
      </trkpt>
      <trkpt lat="42.4392" lon="0.03341">
        <ele>852.2</ele>
        <time>2017-07-31T09:09:37Z</time>
      </trkpt>
      <trkpt lat="42.43923" lon="0.03342">
        <ele>852</ele>
        <time>2017-07-31T09:09:38Z</time>
      </trkpt>
      <trkpt lat="42.43926" lon="0.03343">
        <ele>851.9</ele>
        <time>2017-07-31T09:09:39Z</time>
      </trkpt>
      <trkpt lat="42.43928" lon="0.03344">
        <ele>851.7</ele>
        <time>2017-07-31T09:09:40Z</time>
      </trkpt>
      <trkpt lat="42.43932" lon="0.03345">
        <ele>851.5</ele>
        <time>2017-07-31T09:09:42Z</time>
      </trkpt>
      <trkpt lat="42.43935" lon="0.03344">
        <ele>851.3</ele>
        <time>2017-07-31T09:09:44Z</time>
      </trkpt>
      <trkpt lat="42.43938" lon="0.0334">
        <ele>851.1</ele>
        <time>2017-07-31T09:09:46Z</time>
      </trkpt>
      <trkpt lat="42.43941" lon="0.03337">
        <ele>850.9</ele>
        <time>2017-07-31T09:09:48Z</time>
      </trkpt>
      <trkpt lat="42.43943" lon="0.03333">
        <ele>850.6</ele>
        <time>2017-07-31T09:09:50Z</time>
      </trkpt>
      <trkpt lat="42.43945" lon="0.0333">
        <ele>850.5</ele>
        <time>2017-07-31T09:09:52Z</time>
      </trkpt>
      <trkpt lat="42.43947" lon="0.0333">
        <ele>850.3</ele>
        <time>2017-07-31T09:09:55Z</time>
      </trkpt>
      <trkpt lat="42.4395" lon="0.03335">
        <ele>850.1</ele>
        <time>2017-07-31T09:09:58Z</time>
      </trkpt>
      <trkpt lat="42.43953" lon="0.03337">
        <ele>849.9</ele>
        <time>2017-07-31T09:10:00Z</time>
      </trkpt>
      <trkpt lat="42.43955" lon="0.0334">
        <ele>849.7</ele>
        <time>2017-07-31T09:10:02Z</time>
      </trkpt>
      <trkpt lat="42.43958" lon="0.03345">
        <ele>849.4</ele>
        <time>2017-07-31T09:10:04Z</time>
      </trkpt>
      <trkpt lat="42.43958" lon="0.03349">
        <ele>849.3</ele>
        <time>2017-07-31T09:10:10Z</time>
      </trkpt>
      <trkpt lat="42.4396" lon="0.03353">
        <ele>849.1</ele>
        <time>2017-07-31T09:10:17Z</time>
      </trkpt>
      <trkpt lat="42.43963" lon="0.03354">
        <ele>848.9</ele>
        <time>2017-07-31T09:10:29Z</time>
      </trkpt>
      <trkpt lat="42.43965" lon="0.03355">
        <ele>848.8</ele>
        <time>2017-07-31T09:10:39Z</time>
      </trkpt>
      <trkpt lat="42.43968" lon="0.03353">
        <ele>848.6</ele>
        <time>2017-07-31T09:10:44Z</time>
      </trkpt>
      <trkpt lat="42.4397" lon="0.03351">
        <ele>848.4</ele>
        <time>2017-07-31T09:10:52Z</time>
      </trkpt>
      <trkpt lat="42.43971" lon="0.03348">
        <ele>848.3</ele>
        <time>2017-07-31T09:11:01Z</time>
      </trkpt>
      <trkpt lat="42.43971" lon="0.03344">
        <ele>848.1</ele>
        <time>2017-07-31T09:11:07Z</time>
      </trkpt>
      <trkpt lat="42.43974" lon="0.03342">
        <ele>847.9</ele>
        <time>2017-07-31T09:11:13Z</time>
      </trkpt>
      <trkpt lat="42.43976" lon="0.03345">
        <ele>847.7</ele>
        <time>2017-07-31T09:11:19Z</time>
      </trkpt>
      <trkpt lat="42.43989" lon="0.03355">
        <ele>846.9</ele>
        <time>2017-07-31T09:12:16Z</time>
      </trkpt>
      <trkpt lat="42.43991" lon="0.03358">
        <ele>846.7</ele>
        <time>2017-07-31T09:12:19Z</time>
      </trkpt>
      <trkpt lat="42.43993" lon="0.03362">
        <ele>846.5</ele>
        <time>2017-07-31T09:12:22Z</time>
      </trkpt>
      <trkpt lat="42.43994" lon="0.03366">
        <ele>846.3</ele>
        <time>2017-07-31T09:12:25Z</time>
      </trkpt>
      <trkpt lat="42.43995" lon="0.0337">
        <ele>846.1</ele>
        <time>2017-07-31T09:12:29Z</time>
      </trkpt>
      <trkpt lat="42.43997" lon="0.03374">
        <ele>845.9</ele>
        <time>2017-07-31T09:12:34Z</time>
      </trkpt>
      <trkpt lat="42.44001" lon="0.03379">
        <ele>845.6</ele>
        <time>2017-07-31T09:12:59Z</time>
      </trkpt>
      <trkpt lat="42.44001" lon="0.03383">
        <ele>845.4</ele>
        <time>2017-07-31T09:13:02Z</time>
      </trkpt>
      <trkpt lat="42.44" lon="0.03387">
        <ele>845.3</ele>
        <time>2017-07-31T09:13:05Z</time>
      </trkpt>
      <trkpt lat="42.44" lon="0.03392">
        <ele>845.1</ele>
        <time>2017-07-31T09:13:08Z</time>
      </trkpt>
      <trkpt lat="42.44" lon="0.03397">
        <ele>844.9</ele>
        <time>2017-07-31T09:13:11Z</time>
      </trkpt>
      <trkpt lat="42.43999" lon="0.03401">
        <ele>844.7</ele>
        <time>2017-07-31T09:13:22Z</time>
      </trkpt>
      <trkpt lat="42.44" lon="0.03406">
        <ele>844.5</ele>
        <time>2017-07-31T09:13:24Z</time>
      </trkpt>
      <trkpt lat="42.44" lon="0.03411">
        <ele>844.2</ele>
        <time>2017-07-31T09:13:26Z</time>
      </trkpt>
      <trkpt lat="42.43998" lon="0.03418">
        <ele>843.9</ele>
        <time>2017-07-31T09:13:28Z</time>
      </trkpt>
      <trkpt lat="42.43997" lon="0.03422">
        <ele>843.7</ele>
        <time>2017-07-31T09:13:29Z</time>
      </trkpt>
      <trkpt lat="42.43996" lon="0.03426">
        <ele>843.5</ele>
        <time>2017-07-31T09:13:30Z</time>
      </trkpt>
      <trkpt lat="42.43994" lon="0.03431">
        <ele>843.4</ele>
        <time>2017-07-31T09:13:31Z</time>
      </trkpt>
      <trkpt lat="42.43993" lon="0.03435">
        <ele>843.1</ele>
        <time>2017-07-31T09:13:32Z</time>
      </trkpt>
      <trkpt lat="42.43992" lon="0.0344">
        <ele>842.9</ele>
        <time>2017-07-31T09:13:33Z</time>
      </trkpt>
      <trkpt lat="42.43992" lon="0.03445">
        <ele>842.7</ele>
        <time>2017-07-31T09:13:34Z</time>
      </trkpt>
      <trkpt lat="42.43992" lon="0.0345">
        <ele>842.5</ele>
        <time>2017-07-31T09:13:35Z</time>
      </trkpt>
      <trkpt lat="42.43992" lon="0.03455">
        <ele>842.3</ele>
        <time>2017-07-31T09:13:36Z</time>
      </trkpt>
      <trkpt lat="42.43992" lon="0.03461">
        <ele>842</ele>
        <time>2017-07-31T09:13:37Z</time>
      </trkpt>
      <trkpt lat="42.43993" lon="0.03466">
        <ele>841.8</ele>
        <time>2017-07-31T09:13:38Z</time>
      </trkpt>
      <trkpt lat="42.43993" lon="0.03471">
        <ele>841.6</ele>
        <time>2017-07-31T09:13:39Z</time>
      </trkpt>
      <trkpt lat="42.43992" lon="0.03476">
        <ele>841.4</ele>
        <time>2017-07-31T09:13:40Z</time>
      </trkpt>
      <trkpt lat="42.43992" lon="0.03481">
        <ele>841.2</ele>
        <time>2017-07-31T09:13:41Z</time>
      </trkpt>
      <trkpt lat="42.43991" lon="0.03485">
        <ele>841</ele>
        <time>2017-07-31T09:13:42Z</time>
      </trkpt>
      <trkpt lat="42.4399" lon="0.03489">
        <ele>840.8</ele>
        <time>2017-07-31T09:13:43Z</time>
      </trkpt>
      <trkpt lat="42.4399" lon="0.03493">
        <ele>840.6</ele>
        <time>2017-07-31T09:13:44Z</time>
      </trkpt>
      <trkpt lat="42.4399" lon="0.03498">
        <ele>840.4</ele>
        <time>2017-07-31T09:13:45Z</time>
      </trkpt>
      <trkpt lat="42.43991" lon="0.03503">
        <ele>840.2</ele>
        <time>2017-07-31T09:13:46Z</time>
      </trkpt>
      <trkpt lat="42.43994" lon="0.03508">
        <ele>839.9</ele>
        <time>2017-07-31T09:13:47Z</time>
      </trkpt>
      <trkpt lat="42.43998" lon="0.03513">
        <ele>839.6</ele>
        <time>2017-07-31T09:13:48Z</time>
      </trkpt>
      <trkpt lat="42.44002" lon="0.03519">
        <ele>839.3</ele>
        <time>2017-07-31T09:13:49Z</time>
      </trkpt>
      <trkpt lat="42.44006" lon="0.03525">
        <ele>838.9</ele>
        <time>2017-07-31T09:13:50Z</time>
      </trkpt>
      <trkpt lat="42.4401" lon="0.03532">
        <ele>838.6</ele>
        <time>2017-07-31T09:13:51Z</time>
      </trkpt>
      <trkpt lat="42.44012" lon="0.03539">
        <ele>838.3</ele>
        <time>2017-07-31T09:13:52Z</time>
      </trkpt>
      <trkpt lat="42.44014" lon="0.03544">
        <ele>838</ele>
        <time>2017-07-31T09:13:53Z</time>
      </trkpt>
      <trkpt lat="42.44015" lon="0.03549">
        <ele>837.8</ele>
        <time>2017-07-31T09:13:54Z</time>
      </trkpt>
      <trkpt lat="42.44016" lon="0.03553">
        <ele>837.6</ele>
        <time>2017-07-31T09:13:55Z</time>
      </trkpt>
      <trkpt lat="42.44019" lon="0.03558">
        <ele>837.3</ele>
        <time>2017-07-31T09:13:57Z</time>
      </trkpt>
      <trkpt lat="42.44021" lon="0.03563">
        <ele>837.1</ele>
        <time>2017-07-31T09:13:59Z</time>
      </trkpt>
      <trkpt lat="42.44023" lon="0.03567">
        <ele>836.9</ele>
        <time>2017-07-31T09:14:01Z</time>
      </trkpt>
      <trkpt lat="42.44025" lon="0.03572">
        <ele>836.7</ele>
        <time>2017-07-31T09:14:03Z</time>
      </trkpt>
      <trkpt lat="42.44027" lon="0.03575">
        <ele>836.5</ele>
        <time>2017-07-31T09:14:04Z</time>
      </trkpt>
      <trkpt lat="42.44028" lon="0.03579">
        <ele>836.3</ele>
        <time>2017-07-31T09:14:05Z</time>
      </trkpt>
      <trkpt lat="42.44029" lon="0.03583">
        <ele>836.1</ele>
        <time>2017-07-31T09:14:06Z</time>
      </trkpt>
      <trkpt lat="42.44029" lon="0.03588">
        <ele>835.9</ele>
        <time>2017-07-31T09:14:08Z</time>
      </trkpt>
      <trkpt lat="42.44029" lon="0.03594">
        <ele>835.7</ele>
        <time>2017-07-31T09:14:10Z</time>
      </trkpt>
      <trkpt lat="42.4403" lon="0.03599">
        <ele>835.5</ele>
        <time>2017-07-31T09:14:12Z</time>
      </trkpt>
      <trkpt lat="42.44029" lon="0.03603">
        <ele>835.3</ele>
        <time>2017-07-31T09:14:14Z</time>
      </trkpt>
      <trkpt lat="42.44028" lon="0.03608">
        <ele>835.1</ele>
        <time>2017-07-31T09:14:16Z</time>
      </trkpt>
      <trkpt lat="42.44027" lon="0.03613">
        <ele>834.8</ele>
        <time>2017-07-31T09:14:18Z</time>
      </trkpt>
      <trkpt lat="42.44025" lon="0.03617">
        <ele>834.6</ele>
        <time>2017-07-31T09:14:20Z</time>
      </trkpt>
      <trkpt lat="42.44024" lon="0.03621">
        <ele>834.5</ele>
        <time>2017-07-31T09:14:22Z</time>
      </trkpt>
      <trkpt lat="42.44025" lon="0.03626">
        <ele>834.3</ele>
        <time>2017-07-31T09:14:25Z</time>
      </trkpt>
      <trkpt lat="42.44028" lon="0.03627">
        <ele>834.1</ele>
        <time>2017-07-31T09:14:29Z</time>
      </trkpt>
      <trkpt lat="42.44033" lon="0.03631">
        <ele>833.7</ele>
        <time>2017-07-31T09:15:47Z</time>
      </trkpt>
      <trkpt lat="42.44035" lon="0.03634">
        <ele>833.5</ele>
        <time>2017-07-31T09:15:58Z</time>
      </trkpt>
      <trkpt lat="42.44037" lon="0.03637">
        <ele>833.4</ele>
        <time>2017-07-31T09:16:03Z</time>
      </trkpt>
      <trkpt lat="42.44039" lon="0.0364">
        <ele>833.2</ele>
        <time>2017-07-31T09:16:08Z</time>
      </trkpt>
      <trkpt lat="42.4404" lon="0.03644">
        <ele>833</ele>
        <time>2017-07-31T09:16:22Z</time>
      </trkpt>
      <trkpt lat="42.44042" lon="0.03647">
        <ele>832.9</ele>
        <time>2017-07-31T09:16:25Z</time>
      </trkpt>
      <trkpt lat="42.44045" lon="0.03649">
        <ele>832.7</ele>
        <time>2017-07-31T09:16:30Z</time>
      </trkpt>
      <trkpt lat="42.44046" lon="0.03652">
        <ele>832.5</ele>
        <time>2017-07-31T09:16:39Z</time>
      </trkpt>
      <trkpt lat="42.44048" lon="0.03655">
        <ele>832.3</ele>
        <time>2017-07-31T09:16:44Z</time>
      </trkpt>
      <trkpt lat="42.44051" lon="0.03657">
        <ele>832.2</ele>
        <time>2017-07-31T09:16:48Z</time>
      </trkpt>
      <trkpt lat="42.44055" lon="0.03668">
        <ele>831.7</ele>
        <time>2017-07-31T09:17:27Z</time>
      </trkpt>
      <trkpt lat="42.44056" lon="0.03672">
        <ele>831.5</ele>
        <time>2017-07-31T09:17:29Z</time>
      </trkpt>
      <trkpt lat="42.44058" lon="0.03675">
        <ele>831.3</ele>
        <time>2017-07-31T09:17:31Z</time>
      </trkpt>
      <trkpt lat="42.44061" lon="0.03678">
        <ele>831.1</ele>
        <time>2017-07-31T09:17:33Z</time>
      </trkpt>
      <trkpt lat="42.44063" lon="0.03682">
        <ele>830.9</ele>
        <time>2017-07-31T09:17:35Z</time>
      </trkpt>
      <trkpt lat="42.44066" lon="0.03687">
        <ele>830.6</ele>
        <time>2017-07-31T09:17:37Z</time>
      </trkpt>
      <trkpt lat="42.44068" lon="0.03691">
        <ele>830.4</ele>
        <time>2017-07-31T09:17:39Z</time>
      </trkpt>
      <trkpt lat="42.44071" lon="0.03696">
        <ele>830.2</ele>
        <time>2017-07-31T09:17:41Z</time>
      </trkpt>
      <trkpt lat="42.44073" lon="0.03702">
        <ele>829.9</ele>
        <time>2017-07-31T09:17:43Z</time>
      </trkpt>
      <trkpt lat="42.44076" lon="0.03708">
        <ele>829.6</ele>
        <time>2017-07-31T09:17:45Z</time>
      </trkpt>
      <trkpt lat="42.44078" lon="0.03713">
        <ele>829.3</ele>
        <time>2017-07-31T09:17:47Z</time>
      </trkpt>
      <trkpt lat="42.44081" lon="0.03718">
        <ele>829</ele>
        <time>2017-07-31T09:17:49Z</time>
      </trkpt>
      <trkpt lat="42.44083" lon="0.03724">
        <ele>828.8</ele>
        <time>2017-07-31T09:17:51Z</time>
      </trkpt>
      <trkpt lat="42.44085" lon="0.03728">
        <ele>828.6</ele>
        <time>2017-07-31T09:17:53Z</time>
      </trkpt>
      <trkpt lat="42.44087" lon="0.03732">
        <ele>828.4</ele>
        <time>2017-07-31T09:17:55Z</time>
      </trkpt>
      <trkpt lat="42.44089" lon="0.03736">
        <ele>828.1</ele>
        <time>2017-07-31T09:17:57Z</time>
      </trkpt>
      <trkpt lat="42.44093" lon="0.03742">
        <ele>827.8</ele>
        <time>2017-07-31T09:17:59Z</time>
      </trkpt>
      <trkpt lat="42.44095" lon="0.03745">
        <ele>827.6</ele>
        <time>2017-07-31T09:18:00Z</time>
      </trkpt>
      <trkpt lat="42.44097" lon="0.03748">
        <ele>827.5</ele>
        <time>2017-07-31T09:18:01Z</time>
      </trkpt>
      <trkpt lat="42.44098" lon="0.03751">
        <ele>827.3</ele>
        <time>2017-07-31T09:18:02Z</time>
      </trkpt>
      <trkpt lat="42.44101" lon="0.03754">
        <ele>827.1</ele>
        <time>2017-07-31T09:18:03Z</time>
      </trkpt>
      <trkpt lat="42.44103" lon="0.03757">
        <ele>827</ele>
        <time>2017-07-31T09:18:04Z</time>
      </trkpt>
      <trkpt lat="42.44105" lon="0.03759">
        <ele>826.8</ele>
        <time>2017-07-31T09:18:05Z</time>
      </trkpt>
      <trkpt lat="42.44108" lon="0.03761">
        <ele>826.6</ele>
        <time>2017-07-31T09:18:06Z</time>
      </trkpt>
      <trkpt lat="42.44111" lon="0.03764">
        <ele>826.4</ele>
        <time>2017-07-31T09:18:08Z</time>
      </trkpt>
      <trkpt lat="42.44116" lon="0.03766">
        <ele>826.1</ele>
        <time>2017-07-31T09:18:10Z</time>
      </trkpt>
      <trkpt lat="42.44118" lon="0.03769">
        <ele>825.9</ele>
        <time>2017-07-31T09:18:11Z</time>
      </trkpt>
      <trkpt lat="42.4412" lon="0.03771">
        <ele>825.8</ele>
        <time>2017-07-31T09:18:12Z</time>
      </trkpt>
      <trkpt lat="42.44122" lon="0.03774">
        <ele>825.6</ele>
        <time>2017-07-31T09:18:13Z</time>
      </trkpt>
      <trkpt lat="42.44125" lon="0.03776">
        <ele>825.4</ele>
        <time>2017-07-31T09:18:14Z</time>
      </trkpt>
      <trkpt lat="42.44129" lon="0.0378">
        <ele>825.2</ele>
        <time>2017-07-31T09:18:16Z</time>
      </trkpt>
      <trkpt lat="42.44134" lon="0.03786">
        <ele>824.8</ele>
        <time>2017-07-31T09:19:09Z</time>
      </trkpt>
      <trkpt lat="42.44137" lon="0.0379">
        <ele>824.5</ele>
        <time>2017-07-31T09:19:12Z</time>
      </trkpt>
      <trkpt lat="42.4414" lon="0.03793">
        <ele>824.3</ele>
        <time>2017-07-31T09:19:14Z</time>
      </trkpt>
      <trkpt lat="42.44141" lon="0.03796">
        <ele>824.2</ele>
        <time>2017-07-31T09:19:16Z</time>
      </trkpt>
      <trkpt lat="42.44143" lon="0.038">
        <ele>824</ele>
        <time>2017-07-31T09:19:18Z</time>
      </trkpt>
      <trkpt lat="42.44144" lon="0.03803">
        <ele>823.8</ele>
        <time>2017-07-31T09:19:19Z</time>
      </trkpt>
      <trkpt lat="42.44148" lon="0.03808">
        <ele>823.5</ele>
        <time>2017-07-31T09:19:21Z</time>
      </trkpt>
      <trkpt lat="42.44152" lon="0.03812">
        <ele>823.2</ele>
        <time>2017-07-31T09:19:23Z</time>
      </trkpt>
      <trkpt lat="42.44155" lon="0.03815">
        <ele>823</ele>
        <time>2017-07-31T09:19:25Z</time>
      </trkpt>
      <trkpt lat="42.44158" lon="0.03819">
        <ele>822.8</ele>
        <time>2017-07-31T09:19:27Z</time>
      </trkpt>
      <trkpt lat="42.44161" lon="0.03822">
        <ele>822.6</ele>
        <time>2017-07-31T09:19:29Z</time>
      </trkpt>
      <trkpt lat="42.44163" lon="0.03827">
        <ele>822.3</ele>
        <time>2017-07-31T09:19:31Z</time>
      </trkpt>
      <trkpt lat="42.44165" lon="0.0383">
        <ele>822.1</ele>
        <time>2017-07-31T09:19:33Z</time>
      </trkpt>
      <trkpt lat="42.4417" lon="0.03831">
        <ele>821.9</ele>
        <time>2017-07-31T09:19:35Z</time>
      </trkpt>
      <trkpt lat="42.44174" lon="0.03832">
        <ele>821.6</ele>
        <time>2017-07-31T09:19:37Z</time>
      </trkpt>
      <trkpt lat="42.44178" lon="0.03834">
        <ele>821.4</ele>
        <time>2017-07-31T09:19:39Z</time>
      </trkpt>
      <trkpt lat="42.44181" lon="0.0384">
        <ele>821.1</ele>
        <time>2017-07-31T09:19:41Z</time>
      </trkpt>
      <trkpt lat="42.44181" lon="0.03845">
        <ele>820.9</ele>
        <time>2017-07-31T09:19:42Z</time>
      </trkpt>
      <trkpt lat="42.44182" lon="0.03848">
        <ele>820.7</ele>
        <time>2017-07-31T09:19:43Z</time>
      </trkpt>
      <trkpt lat="42.44182" lon="0.03852">
        <ele>820.6</ele>
        <time>2017-07-31T09:19:44Z</time>
      </trkpt>
      <trkpt lat="42.44185" lon="0.03858">
        <ele>820.3</ele>
        <time>2017-07-31T09:19:46Z</time>
      </trkpt>
      <trkpt lat="42.44187" lon="0.0386">
        <ele>820.1</ele>
        <time>2017-07-31T09:19:47Z</time>
      </trkpt>
      <trkpt lat="42.44191" lon="0.03863">
        <ele>819.9</ele>
        <time>2017-07-31T09:19:49Z</time>
      </trkpt>
      <trkpt lat="42.44195" lon="0.03865">
        <ele>819.6</ele>
        <time>2017-07-31T09:19:51Z</time>
      </trkpt>
      <trkpt lat="42.44199" lon="0.03867">
        <ele>819.4</ele>
        <time>2017-07-31T09:19:53Z</time>
      </trkpt>
      <trkpt lat="42.44202" lon="0.03871">
        <ele>819.2</ele>
        <time>2017-07-31T09:19:55Z</time>
      </trkpt>
      <trkpt lat="42.44202" lon="0.03875">
        <ele>819</ele>
        <time>2017-07-31T09:19:57Z</time>
      </trkpt>
      <trkpt lat="42.442" lon="0.0388">
        <ele>818.7</ele>
        <time>2017-07-31T09:19:59Z</time>
      </trkpt>
      <trkpt lat="42.44198" lon="0.03884">
        <ele>818.5</ele>
        <time>2017-07-31T09:20:01Z</time>
      </trkpt>
      <trkpt lat="42.44195" lon="0.03888">
        <ele>818.3</ele>
        <time>2017-07-31T09:20:03Z</time>
      </trkpt>
      <trkpt lat="42.44192" lon="0.03891">
        <ele>818.1</ele>
        <time>2017-07-31T09:20:05Z</time>
      </trkpt>
      <trkpt lat="42.44189" lon="0.03892">
        <ele>817.9</ele>
        <time>2017-07-31T09:20:07Z</time>
      </trkpt>
      <trkpt lat="42.44185" lon="0.03894">
        <ele>817.6</ele>
        <time>2017-07-31T09:20:09Z</time>
      </trkpt>
      <trkpt lat="42.44181" lon="0.03897">
        <ele>817.4</ele>
        <time>2017-07-31T09:20:11Z</time>
      </trkpt>
      <trkpt lat="42.44179" lon="0.03898">
        <ele>817.2</ele>
        <time>2017-07-31T09:20:13Z</time>
      </trkpt>
      <trkpt lat="42.44179" lon="0.03903">
        <ele>817</ele>
        <time>2017-07-31T09:20:17Z</time>
      </trkpt>
      <trkpt lat="42.44182" lon="0.03906">
        <ele>816.8</ele>
        <time>2017-07-31T09:20:19Z</time>
      </trkpt>
      <trkpt lat="42.44186" lon="0.0391">
        <ele>816.5</ele>
        <time>2017-07-31T09:20:21Z</time>
      </trkpt>
      <trkpt lat="42.44188" lon="0.03913">
        <ele>816.3</ele>
        <time>2017-07-31T09:20:23Z</time>
      </trkpt>
      <trkpt lat="42.44189" lon="0.03917">
        <ele>816.1</ele>
        <time>2017-07-31T09:20:25Z</time>
      </trkpt>
      <trkpt lat="42.44188" lon="0.03922">
        <ele>815.9</ele>
        <time>2017-07-31T09:20:27Z</time>
      </trkpt>
      <trkpt lat="42.44192" lon="0.03926">
        <ele>815.7</ele>
        <time>2017-07-31T09:20:31Z</time>
      </trkpt>
      <trkpt lat="42.44195" lon="0.03928">
        <ele>815.4</ele>
        <time>2017-07-31T09:20:33Z</time>
      </trkpt>
      <trkpt lat="42.442" lon="0.0393">
        <ele>815.2</ele>
        <time>2017-07-31T09:20:35Z</time>
      </trkpt>
      <trkpt lat="42.44204" lon="0.03931">
        <ele>814.9</ele>
        <time>2017-07-31T09:20:37Z</time>
      </trkpt>
      <trkpt lat="42.44208" lon="0.03934">
        <ele>814.7</ele>
        <time>2017-07-31T09:20:39Z</time>
      </trkpt>
      <trkpt lat="42.4421" lon="0.03939">
        <ele>814.4</ele>
        <time>2017-07-31T09:20:41Z</time>
      </trkpt>
      <trkpt lat="42.44212" lon="0.03944">
        <ele>814.2</ele>
        <time>2017-07-31T09:20:43Z</time>
      </trkpt>
      <trkpt lat="42.44213" lon="0.03948">
        <ele>814</ele>
        <time>2017-07-31T09:20:45Z</time>
      </trkpt>
      <trkpt lat="42.44218" lon="0.03951">
        <ele>813.7</ele>
        <time>2017-07-31T09:20:47Z</time>
      </trkpt>
      <trkpt lat="42.4422" lon="0.03953">
        <ele>813.5</ele>
        <time>2017-07-31T09:20:48Z</time>
      </trkpt>
      <trkpt lat="42.44224" lon="0.03957">
        <ele>813.3</ele>
        <time>2017-07-31T09:20:50Z</time>
      </trkpt>
      <trkpt lat="42.44226" lon="0.0396">
        <ele>813.1</ele>
        <time>2017-07-31T09:20:52Z</time>
      </trkpt>
      <trkpt lat="42.4423" lon="0.03963">
        <ele>812.8</ele>
        <time>2017-07-31T09:20:54Z</time>
      </trkpt>
      <trkpt lat="42.44232" lon="0.03967">
        <ele>812.6</ele>
        <time>2017-07-31T09:20:56Z</time>
      </trkpt>
      <trkpt lat="42.4423" lon="0.03971">
        <ele>812.4</ele>
        <time>2017-07-31T09:20:58Z</time>
      </trkpt>
      <trkpt lat="42.44224" lon="0.03974">
        <ele>812.1</ele>
        <time>2017-07-31T09:21:00Z</time>
      </trkpt>
      <trkpt lat="42.4422" lon="0.03976">
        <ele>811.8</ele>
        <time>2017-07-31T09:21:02Z</time>
      </trkpt>
      <trkpt lat="42.4422" lon="0.03981">
        <ele>811.6</ele>
        <time>2017-07-31T09:21:05Z</time>
      </trkpt>
      <trkpt lat="42.44223" lon="0.03984">
        <ele>811.4</ele>
        <time>2017-07-31T09:21:07Z</time>
      </trkpt>
      <trkpt lat="42.44225" lon="0.03987">
        <ele>811.3</ele>
        <time>2017-07-31T09:21:10Z</time>
      </trkpt>
      <trkpt lat="42.44222" lon="0.0399">
        <ele>811.1</ele>
        <time>2017-07-31T09:21:12Z</time>
      </trkpt>
      <trkpt lat="42.44219" lon="0.03993">
        <ele>810.9</ele>
        <time>2017-07-31T09:21:14Z</time>
      </trkpt>
      <trkpt lat="42.4422" lon="0.03997">
        <ele>810.7</ele>
        <time>2017-07-31T09:21:16Z</time>
      </trkpt>
      <trkpt lat="42.44225" lon="0.04">
        <ele>810.4</ele>
        <time>2017-07-31T09:21:18Z</time>
      </trkpt>
      <trkpt lat="42.44229" lon="0.04001">
        <ele>810.2</ele>
        <time>2017-07-31T09:21:19Z</time>
      </trkpt>
      <trkpt lat="42.44232" lon="0.04002">
        <ele>810</ele>
        <time>2017-07-31T09:21:20Z</time>
      </trkpt>
      <trkpt lat="42.44235" lon="0.04004">
        <ele>809.8</ele>
        <time>2017-07-31T09:21:21Z</time>
      </trkpt>
      <trkpt lat="42.44238" lon="0.04005">
        <ele>809.7</ele>
        <time>2017-07-31T09:21:22Z</time>
      </trkpt>
      <trkpt lat="42.4424" lon="0.04006">
        <ele>809.5</ele>
        <time>2017-07-31T09:21:23Z</time>
      </trkpt>
      <trkpt lat="42.44243" lon="0.04008">
        <ele>809.3</ele>
        <time>2017-07-31T09:21:24Z</time>
      </trkpt>
      <trkpt lat="42.44246" lon="0.04009">
        <ele>809.2</ele>
        <time>2017-07-31T09:21:25Z</time>
      </trkpt>
      <trkpt lat="42.44248" lon="0.04011">
        <ele>809</ele>
        <time>2017-07-31T09:21:26Z</time>
      </trkpt>
      <trkpt lat="42.44251" lon="0.04013">
        <ele>808.8</ele>
        <time>2017-07-31T09:21:27Z</time>
      </trkpt>
      <trkpt lat="42.44255" lon="0.04015">
        <ele>808.6</ele>
        <time>2017-07-31T09:21:28Z</time>
      </trkpt>
      <trkpt lat="42.44258" lon="0.04017">
        <ele>808.4</ele>
        <time>2017-07-31T09:21:29Z</time>
      </trkpt>
      <trkpt lat="42.44261" lon="0.04018">
        <ele>808.2</ele>
        <time>2017-07-31T09:21:30Z</time>
      </trkpt>
      <trkpt lat="42.44266" lon="0.04019">
        <ele>807.9</ele>
        <time>2017-07-31T09:21:32Z</time>
      </trkpt>
      <trkpt lat="42.4427" lon="0.04022">
        <ele>807.6</ele>
        <time>2017-07-31T09:21:34Z</time>
      </trkpt>
      <trkpt lat="42.44272" lon="0.04026">
        <ele>807.4</ele>
        <time>2017-07-31T09:21:36Z</time>
      </trkpt>
      <trkpt lat="42.44269" lon="0.0403">
        <ele>807.2</ele>
        <time>2017-07-31T09:21:38Z</time>
      </trkpt>
      <trkpt lat="42.44266" lon="0.04033">
        <ele>807</ele>
        <time>2017-07-31T09:21:40Z</time>
      </trkpt>
      <trkpt lat="42.44267" lon="0.04036">
        <ele>806.8</ele>
        <time>2017-07-31T09:21:42Z</time>
      </trkpt>
      <trkpt lat="42.44269" lon="0.04038">
        <ele>806.6</ele>
        <time>2017-07-31T09:21:43Z</time>
      </trkpt>
      <trkpt lat="42.44272" lon="0.04039">
        <ele>806.5</ele>
        <time>2017-07-31T09:21:44Z</time>
      </trkpt>
      <trkpt lat="42.44275" lon="0.0404">
        <ele>806.3</ele>
        <time>2017-07-31T09:21:45Z</time>
      </trkpt>
      <trkpt lat="42.44278" lon="0.04041">
        <ele>806.1</ele>
        <time>2017-07-31T09:21:46Z</time>
      </trkpt>
      <trkpt lat="42.44281" lon="0.04041">
        <ele>805.9</ele>
        <time>2017-07-31T09:21:47Z</time>
      </trkpt>
      <trkpt lat="42.44284" lon="0.04042">
        <ele>805.8</ele>
        <time>2017-07-31T09:21:48Z</time>
      </trkpt>
      <trkpt lat="42.44288" lon="0.04044">
        <ele>805.5</ele>
        <time>2017-07-31T09:21:50Z</time>
      </trkpt>
      <trkpt lat="42.44291" lon="0.04044">
        <ele>805.3</ele>
        <time>2017-07-31T09:21:52Z</time>
      </trkpt>
      <trkpt lat="42.44294" lon="0.04043">
        <ele>805.2</ele>
        <time>2017-07-31T09:21:58Z</time>
      </trkpt>
      <trkpt lat="42.44298" lon="0.04045">
        <ele>804.9</ele>
        <time>2017-07-31T09:22:01Z</time>
      </trkpt>
      <trkpt lat="42.44303" lon="0.04047">
        <ele>804.7</ele>
        <time>2017-07-31T09:22:03Z</time>
      </trkpt>
      <trkpt lat="42.44306" lon="0.04048">
        <ele>804.4</ele>
        <time>2017-07-31T09:22:05Z</time>
      </trkpt>
      <trkpt lat="42.44305" lon="0.04052">
        <ele>804.3</ele>
        <time>2017-07-31T09:22:37Z</time>
      </trkpt>
      <trkpt lat="42.44302" lon="0.04054">
        <ele>804.1</ele>
        <time>2017-07-31T09:22:39Z</time>
      </trkpt>
      <trkpt lat="42.44299" lon="0.04057">
        <ele>803.9</ele>
        <time>2017-07-31T09:22:41Z</time>
      </trkpt>
      <trkpt lat="42.44296" lon="0.0406">
        <ele>803.6</ele>
        <time>2017-07-31T09:22:43Z</time>
      </trkpt>
      <trkpt lat="42.44292" lon="0.04063">
        <ele>803.3</ele>
        <time>2017-07-31T09:22:45Z</time>
      </trkpt>
      <trkpt lat="42.44288" lon="0.04064">
        <ele>803.1</ele>
        <time>2017-07-31T09:22:47Z</time>
      </trkpt>
      <trkpt lat="42.44285" lon="0.04067">
        <ele>802.9</ele>
        <time>2017-07-31T09:22:49Z</time>
      </trkpt>
      <trkpt lat="42.44284" lon="0.04071">
        <ele>802.8</ele>
        <time>2017-07-31T09:22:51Z</time>
      </trkpt>
      <trkpt lat="42.44286" lon="0.04074">
        <ele>802.6</ele>
        <time>2017-07-31T09:22:53Z</time>
      </trkpt>
      <trkpt lat="42.4429" lon="0.04077">
        <ele>802.3</ele>
        <time>2017-07-31T09:22:55Z</time>
      </trkpt>
      <trkpt lat="42.44294" lon="0.04079">
        <ele>802.1</ele>
        <time>2017-07-31T09:22:57Z</time>
      </trkpt>
      <trkpt lat="42.44298" lon="0.04081">
        <ele>801.8</ele>
        <time>2017-07-31T09:22:59Z</time>
      </trkpt>
      <trkpt lat="42.44302" lon="0.04084">
        <ele>801.6</ele>
        <time>2017-07-31T09:23:01Z</time>
      </trkpt>
      <trkpt lat="42.44302" lon="0.04089">
        <ele>801.4</ele>
        <time>2017-07-31T09:23:04Z</time>
      </trkpt>
      <trkpt lat="42.44298" lon="0.0409">
        <ele>801.1</ele>
        <time>2017-07-31T09:23:06Z</time>
      </trkpt>
      <trkpt lat="42.44298" lon="0.04094">
        <ele>801</ele>
        <time>2017-07-31T09:23:13Z</time>
      </trkpt>
      <trkpt lat="42.44301" lon="0.04096">
        <ele>800.8</ele>
        <time>2017-07-31T09:23:20Z</time>
      </trkpt>
      <trkpt lat="42.44302" lon="0.041">
        <ele>800.6</ele>
        <time>2017-07-31T09:23:24Z</time>
      </trkpt>
      <trkpt lat="42.443" lon="0.04104">
        <ele>800.4</ele>
        <time>2017-07-31T09:23:26Z</time>
      </trkpt>
      <trkpt lat="42.44298" lon="0.04106">
        <ele>800.2</ele>
        <time>2017-07-31T09:23:28Z</time>
      </trkpt>
      <trkpt lat="42.44295" lon="0.04107">
        <ele>800.1</ele>
        <time>2017-07-31T09:23:31Z</time>
      </trkpt>
      <trkpt lat="42.44297" lon="0.04111">
        <ele>799.9</ele>
        <time>2017-07-31T09:23:40Z</time>
      </trkpt>
      <trkpt lat="42.44301" lon="0.04113">
        <ele>799.7</ele>
        <time>2017-07-31T09:23:42Z</time>
      </trkpt>
      <trkpt lat="42.44304" lon="0.04115">
        <ele>799.4</ele>
        <time>2017-07-31T09:23:44Z</time>
      </trkpt>
      <trkpt lat="42.44308" lon="0.04118">
        <ele>799.2</ele>
        <time>2017-07-31T09:23:46Z</time>
      </trkpt>
      <trkpt lat="42.44312" lon="0.04121">
        <ele>798.9</ele>
        <time>2017-07-31T09:23:48Z</time>
      </trkpt>
      <trkpt lat="42.44317" lon="0.04122">
        <ele>798.6</ele>
        <time>2017-07-31T09:23:50Z</time>
      </trkpt>
      <trkpt lat="42.4432" lon="0.04124">
        <ele>798.5</ele>
        <time>2017-07-31T09:23:51Z</time>
      </trkpt>
      <trkpt lat="42.44322" lon="0.04126">
        <ele>798.3</ele>
        <time>2017-07-31T09:23:52Z</time>
      </trkpt>
      <trkpt lat="42.44325" lon="0.04128">
        <ele>798.1</ele>
        <time>2017-07-31T09:23:53Z</time>
      </trkpt>
      <trkpt lat="42.44328" lon="0.0413">
        <ele>797.9</ele>
        <time>2017-07-31T09:23:54Z</time>
      </trkpt>
      <trkpt lat="42.4433" lon="0.04132">
        <ele>797.8</ele>
        <time>2017-07-31T09:23:55Z</time>
      </trkpt>
      <trkpt lat="42.44332" lon="0.04134">
        <ele>797.6</ele>
        <time>2017-07-31T09:23:56Z</time>
      </trkpt>
      <trkpt lat="42.44337" lon="0.04137">
        <ele>797.4</ele>
        <time>2017-07-31T09:23:58Z</time>
      </trkpt>
      <trkpt lat="42.4434" lon="0.04141">
        <ele>797.1</ele>
        <time>2017-07-31T09:24:00Z</time>
      </trkpt>
      <trkpt lat="42.44344" lon="0.04145">
        <ele>796.8</ele>
        <time>2017-07-31T09:24:02Z</time>
      </trkpt>
      <trkpt lat="42.44348" lon="0.04148">
        <ele>796.5</ele>
        <time>2017-07-31T09:24:04Z</time>
      </trkpt>
      <trkpt lat="42.44353" lon="0.0415">
        <ele>796.3</ele>
        <time>2017-07-31T09:24:06Z</time>
      </trkpt>
      <trkpt lat="42.44355" lon="0.04151">
        <ele>796.1</ele>
        <time>2017-07-31T09:24:08Z</time>
      </trkpt>
      <trkpt lat="42.44353" lon="0.04155">
        <ele>795.9</ele>
        <time>2017-07-31T09:24:11Z</time>
      </trkpt>
      <trkpt lat="42.4435" lon="0.04157">
        <ele>795.7</ele>
        <time>2017-07-31T09:24:13Z</time>
      </trkpt>
      <trkpt lat="42.44352" lon="0.04162">
        <ele>795.5</ele>
        <time>2017-07-31T09:24:16Z</time>
      </trkpt>
      <trkpt lat="42.44355" lon="0.04164">
        <ele>795.3</ele>
        <time>2017-07-31T09:24:18Z</time>
      </trkpt>
      <trkpt lat="42.44353" lon="0.04168">
        <ele>795.1</ele>
        <time>2017-07-31T09:24:22Z</time>
      </trkpt>
      <trkpt lat="42.44348" lon="0.0417">
        <ele>794.8</ele>
        <time>2017-07-31T09:24:24Z</time>
      </trkpt>
      <trkpt lat="42.44347" lon="0.04174">
        <ele>794.6</ele>
        <time>2017-07-31T09:24:26Z</time>
      </trkpt>
      <trkpt lat="42.44353" lon="0.04178">
        <ele>794.3</ele>
        <time>2017-07-31T09:24:28Z</time>
      </trkpt>
      <trkpt lat="42.44356" lon="0.04179">
        <ele>794.1</ele>
        <time>2017-07-31T09:24:29Z</time>
      </trkpt>
      <trkpt lat="42.44358" lon="0.04179">
        <ele>793.9</ele>
        <time>2017-07-31T09:24:30Z</time>
      </trkpt>
      <trkpt lat="42.44361" lon="0.0418">
        <ele>793.8</ele>
        <time>2017-07-31T09:24:31Z</time>
      </trkpt>
      <trkpt lat="42.44364" lon="0.0418">
        <ele>793.6</ele>
        <time>2017-07-31T09:24:32Z</time>
      </trkpt>
      <trkpt lat="42.44367" lon="0.04181">
        <ele>793.4</ele>
        <time>2017-07-31T09:24:33Z</time>
      </trkpt>
      <trkpt lat="42.4437" lon="0.04182">
        <ele>793.3</ele>
        <time>2017-07-31T09:24:34Z</time>
      </trkpt>
      <trkpt lat="42.44374" lon="0.04185">
        <ele>793</ele>
        <time>2017-07-31T09:24:36Z</time>
      </trkpt>
      <trkpt lat="42.44377" lon="0.04186">
        <ele>792.8</ele>
        <time>2017-07-31T09:24:38Z</time>
      </trkpt>
      <trkpt lat="42.44375" lon="0.0419">
        <ele>792.7</ele>
        <time>2017-07-31T09:24:54Z</time>
      </trkpt>
      <trkpt lat="42.44377" lon="0.04193">
        <ele>792.5</ele>
        <time>2017-07-31T09:25:00Z</time>
      </trkpt>
      <trkpt lat="42.4438" lon="0.04194">
        <ele>792.3</ele>
        <time>2017-07-31T09:25:03Z</time>
      </trkpt>
      <trkpt lat="42.44382" lon="0.04196">
        <ele>792.2</ele>
        <time>2017-07-31T09:25:07Z</time>
      </trkpt>
      <trkpt lat="42.44383" lon="0.042">
        <ele>792</ele>
        <time>2017-07-31T09:25:13Z</time>
      </trkpt>
      <trkpt lat="42.44384" lon="0.04203">
        <ele>791.8</ele>
        <time>2017-07-31T09:25:19Z</time>
      </trkpt>
      <trkpt lat="42.44383" lon="0.04207">
        <ele>791.7</ele>
        <time>2017-07-31T09:25:24Z</time>
      </trkpt>
      <trkpt lat="42.44378" lon="0.04209">
        <ele>791.4</ele>
        <time>2017-07-31T09:25:33Z</time>
      </trkpt>
      <trkpt lat="42.44374" lon="0.04212">
        <ele>791.1</ele>
        <time>2017-07-31T09:25:35Z</time>
      </trkpt>
      <trkpt lat="42.44372" lon="0.04214">
        <ele>790.9</ele>
        <time>2017-07-31T09:25:36Z</time>
      </trkpt>
      <trkpt lat="42.44369" lon="0.04216">
        <ele>790.8</ele>
        <time>2017-07-31T09:25:37Z</time>
      </trkpt>
      <trkpt lat="42.44366" lon="0.04218">
        <ele>790.6</ele>
        <time>2017-07-31T09:25:38Z</time>
      </trkpt>
      <trkpt lat="42.44363" lon="0.0422">
        <ele>790.4</ele>
        <time>2017-07-31T09:25:39Z</time>
      </trkpt>
      <trkpt lat="42.44359" lon="0.04222">
        <ele>790.1</ele>
        <time>2017-07-31T09:25:41Z</time>
      </trkpt>
      <trkpt lat="42.44354" lon="0.04224">
        <ele>789.8</ele>
        <time>2017-07-31T09:25:43Z</time>
      </trkpt>
      <trkpt lat="42.44354" lon="0.04229">
        <ele>789.6</ele>
        <time>2017-07-31T09:25:46Z</time>
      </trkpt>
      <trkpt lat="42.44357" lon="0.04231">
        <ele>789.5</ele>
        <time>2017-07-31T09:25:47Z</time>
      </trkpt>
      <trkpt lat="42.4436" lon="0.04231">
        <ele>789.3</ele>
        <time>2017-07-31T09:25:48Z</time>
      </trkpt>
      <trkpt lat="42.44362" lon="0.04232">
        <ele>789.1</ele>
        <time>2017-07-31T09:25:49Z</time>
      </trkpt>
      <trkpt lat="42.44365" lon="0.04234">
        <ele>789</ele>
        <time>2017-07-31T09:25:50Z</time>
      </trkpt>
      <trkpt lat="42.44367" lon="0.04235">
        <ele>788.8</ele>
        <time>2017-07-31T09:25:51Z</time>
      </trkpt>
      <trkpt lat="42.4437" lon="0.04237">
        <ele>788.7</ele>
        <time>2017-07-31T09:25:52Z</time>
      </trkpt>
      <trkpt lat="42.44373" lon="0.04238">
        <ele>788.5</ele>
        <time>2017-07-31T09:25:53Z</time>
      </trkpt>
      <trkpt lat="42.44375" lon="0.0424">
        <ele>788.3</ele>
        <time>2017-07-31T09:25:54Z</time>
      </trkpt>
      <trkpt lat="42.44379" lon="0.04243">
        <ele>788.1</ele>
        <time>2017-07-31T09:25:56Z</time>
      </trkpt>
      <trkpt lat="42.44383" lon="0.04245">
        <ele>787.8</ele>
        <time>2017-07-31T09:25:59Z</time>
      </trkpt>
      <trkpt lat="42.44386" lon="0.04245">
        <ele>787.6</ele>
        <time>2017-07-31T09:26:01Z</time>
      </trkpt>
      <trkpt lat="42.44389" lon="0.04248">
        <ele>787.5</ele>
        <time>2017-07-31T09:26:03Z</time>
      </trkpt>
      <trkpt lat="42.44387" lon="0.04252">
        <ele>787.3</ele>
        <time>2017-07-31T09:26:05Z</time>
      </trkpt>
      <trkpt lat="42.44385" lon="0.04254">
        <ele>787.1</ele>
        <time>2017-07-31T09:26:06Z</time>
      </trkpt>
      <trkpt lat="42.4438" lon="0.04257">
        <ele>786.8</ele>
        <time>2017-07-31T09:26:08Z</time>
      </trkpt>
      <trkpt lat="42.44381" lon="0.04261">
        <ele>786.7</ele>
        <time>2017-07-31T09:26:11Z</time>
      </trkpt>
      <trkpt lat="42.44386" lon="0.04263">
        <ele>786.4</ele>
        <time>2017-07-31T09:26:13Z</time>
      </trkpt>
      <trkpt lat="42.4439" lon="0.04265">
        <ele>786.1</ele>
        <time>2017-07-31T09:26:15Z</time>
      </trkpt>
      <trkpt lat="42.44393" lon="0.04268">
        <ele>785.9</ele>
        <time>2017-07-31T09:26:17Z</time>
      </trkpt>
      <trkpt lat="42.44397" lon="0.04269">
        <ele>785.7</ele>
        <time>2017-07-31T09:26:19Z</time>
      </trkpt>
      <trkpt lat="42.44399" lon="0.04272">
        <ele>785.5</ele>
        <time>2017-07-31T09:26:22Z</time>
      </trkpt>
      <trkpt lat="42.44397" lon="0.04276">
        <ele>785.3</ele>
        <time>2017-07-31T09:26:24Z</time>
      </trkpt>
      <trkpt lat="42.44393" lon="0.0428">
        <ele>785</ele>
        <time>2017-07-31T09:26:26Z</time>
      </trkpt>
      <trkpt lat="42.44388" lon="0.04282">
        <ele>784.7</ele>
        <time>2017-07-31T09:26:28Z</time>
      </trkpt>
      <trkpt lat="42.44385" lon="0.04283">
        <ele>784.5</ele>
        <time>2017-07-31T09:26:30Z</time>
      </trkpt>
      <trkpt lat="42.44385" lon="0.04287">
        <ele>784.4</ele>
        <time>2017-07-31T09:26:32Z</time>
      </trkpt>
      <trkpt lat="42.4439" lon="0.04291">
        <ele>784.1</ele>
        <time>2017-07-31T09:26:34Z</time>
      </trkpt>
      <trkpt lat="42.44392" lon="0.04292">
        <ele>783.9</ele>
        <time>2017-07-31T09:26:35Z</time>
      </trkpt>
      <trkpt lat="42.44395" lon="0.04293">
        <ele>783.8</ele>
        <time>2017-07-31T09:26:36Z</time>
      </trkpt>
      <trkpt lat="42.44398" lon="0.04294">
        <ele>783.6</ele>
        <time>2017-07-31T09:26:37Z</time>
      </trkpt>
      <trkpt lat="42.444" lon="0.04295">
        <ele>783.4</ele>
        <time>2017-07-31T09:26:38Z</time>
      </trkpt>
      <trkpt lat="42.44403" lon="0.04297">
        <ele>783.3</ele>
        <time>2017-07-31T09:26:39Z</time>
      </trkpt>
      <trkpt lat="42.44407" lon="0.04301">
        <ele>783</ele>
        <time>2017-07-31T09:26:41Z</time>
      </trkpt>
      <trkpt lat="42.4441" lon="0.04305">
        <ele>782.7</ele>
        <time>2017-07-31T09:26:43Z</time>
      </trkpt>
      <trkpt lat="42.44413" lon="0.04307">
        <ele>782.5</ele>
        <time>2017-07-31T09:26:45Z</time>
      </trkpt>
      <trkpt lat="42.44416" lon="0.04309">
        <ele>782.3</ele>
        <time>2017-07-31T09:26:47Z</time>
      </trkpt>
      <trkpt lat="42.44417" lon="0.04313">
        <ele>782.1</ele>
        <time>2017-07-31T09:26:50Z</time>
      </trkpt>
      <trkpt lat="42.44413" lon="0.04316">
        <ele>781.9</ele>
        <time>2017-07-31T09:26:52Z</time>
      </trkpt>
      <trkpt lat="42.44411" lon="0.04318">
        <ele>781.7</ele>
        <time>2017-07-31T09:26:53Z</time>
      </trkpt>
      <trkpt lat="42.44408" lon="0.04319">
        <ele>781.5</ele>
        <time>2017-07-31T09:26:54Z</time>
      </trkpt>
      <trkpt lat="42.44404" lon="0.04321">
        <ele>781.3</ele>
        <time>2017-07-31T09:26:56Z</time>
      </trkpt>
      <trkpt lat="42.444" lon="0.04322">
        <ele>781.1</ele>
        <time>2017-07-31T09:26:58Z</time>
      </trkpt>
      <trkpt lat="42.444" lon="0.04326">
        <ele>780.9</ele>
        <time>2017-07-31T09:27:03Z</time>
      </trkpt>
      <trkpt lat="42.44403" lon="0.04327">
        <ele>780.7</ele>
        <time>2017-07-31T09:27:05Z</time>
      </trkpt>
      <trkpt lat="42.44405" lon="0.04331">
        <ele>780.5</ele>
        <time>2017-07-31T09:27:08Z</time>
      </trkpt>
      <trkpt lat="42.44401" lon="0.04334">
        <ele>780.2</ele>
        <time>2017-07-31T09:27:10Z</time>
      </trkpt>
      <trkpt lat="42.44398" lon="0.04334">
        <ele>780.1</ele>
        <time>2017-07-31T09:27:19Z</time>
      </trkpt>
      <trkpt lat="42.44394" lon="0.04337">
        <ele>779.8</ele>
        <time>2017-07-31T09:28:18Z</time>
      </trkpt>
      <trkpt lat="42.44389" lon="0.04338">
        <ele>779.6</ele>
        <time>2017-07-31T09:28:20Z</time>
      </trkpt>
      <trkpt lat="42.44384" lon="0.04339">
        <ele>779.3</ele>
        <time>2017-07-31T09:28:22Z</time>
      </trkpt>
      <trkpt lat="42.4438" lon="0.04338">
        <ele>779</ele>
        <time>2017-07-31T09:28:24Z</time>
      </trkpt>
      <trkpt lat="42.44376" lon="0.04337">
        <ele>778.8</ele>
        <time>2017-07-31T09:28:26Z</time>
      </trkpt>
      <trkpt lat="42.44372" lon="0.04337">
        <ele>778.6</ele>
        <time>2017-07-31T09:28:28Z</time>
      </trkpt>
      <trkpt lat="42.44368" lon="0.04337">
        <ele>778.4</ele>
        <time>2017-07-31T09:28:30Z</time>
      </trkpt>
      <trkpt lat="42.44364" lon="0.04336">
        <ele>778.1</ele>
        <time>2017-07-31T09:28:33Z</time>
      </trkpt>
      <trkpt lat="42.44361" lon="0.04335">
        <ele>777.9</ele>
        <time>2017-07-31T09:28:39Z</time>
      </trkpt>
      <trkpt lat="42.44359" lon="0.04337">
        <ele>777.8</ele>
        <time>2017-07-31T09:28:43Z</time>
      </trkpt>
      <trkpt lat="42.44357" lon="0.0434">
        <ele>777.6</ele>
        <time>2017-07-31T09:28:46Z</time>
      </trkpt>
      <trkpt lat="42.44357" lon="0.04343">
        <ele>777.4</ele>
        <time>2017-07-31T09:28:51Z</time>
      </trkpt>
      <trkpt lat="42.44357" lon="0.04348">
        <ele>777.2</ele>
        <time>2017-07-31T09:28:57Z</time>
      </trkpt>
      <trkpt lat="42.4436" lon="0.0435">
        <ele>777.1</ele>
        <time>2017-07-31T09:29:03Z</time>
      </trkpt>
      <trkpt lat="42.44362" lon="0.04353">
        <ele>776.9</ele>
        <time>2017-07-31T09:29:08Z</time>
      </trkpt>
      <trkpt lat="42.44364" lon="0.04356">
        <ele>776.7</ele>
        <time>2017-07-31T09:29:13Z</time>
      </trkpt>
      <trkpt lat="42.44364" lon="0.0436">
        <ele>776.5</ele>
        <time>2017-07-31T09:29:17Z</time>
      </trkpt>
      <trkpt lat="42.44362" lon="0.04364">
        <ele>776.3</ele>
        <time>2017-07-31T09:29:20Z</time>
      </trkpt>
      <trkpt lat="42.4436" lon="0.04369">
        <ele>776.1</ele>
        <time>2017-07-31T09:29:24Z</time>
      </trkpt>
      <trkpt lat="42.44358" lon="0.04371">
        <ele>775.9</ele>
        <time>2017-07-31T09:29:27Z</time>
      </trkpt>
      <trkpt lat="42.44359" lon="0.04375">
        <ele>775.7</ele>
        <time>2017-07-31T09:29:34Z</time>
      </trkpt>
      <trkpt lat="42.44362" lon="0.04377">
        <ele>775.5</ele>
        <time>2017-07-31T09:29:36Z</time>
      </trkpt>
      <trkpt lat="42.44365" lon="0.04379">
        <ele>775.3</ele>
        <time>2017-07-31T09:29:38Z</time>
      </trkpt>
      <trkpt lat="42.44368" lon="0.04381">
        <ele>775.1</ele>
        <time>2017-07-31T09:29:40Z</time>
      </trkpt>
      <trkpt lat="42.44371" lon="0.04383">
        <ele>775</ele>
        <time>2017-07-31T09:29:43Z</time>
      </trkpt>
      <trkpt lat="42.44373" lon="0.04387">
        <ele>774.8</ele>
        <time>2017-07-31T09:29:49Z</time>
      </trkpt>
      <trkpt lat="42.4437" lon="0.04389">
        <ele>774.6</ele>
        <time>2017-07-31T09:29:52Z</time>
      </trkpt>
      <trkpt lat="42.4437" lon="0.04393">
        <ele>774.4</ele>
        <time>2017-07-31T09:29:58Z</time>
      </trkpt>
      <trkpt lat="42.44373" lon="0.04396">
        <ele>774.2</ele>
        <time>2017-07-31T09:30:01Z</time>
      </trkpt>
      <trkpt lat="42.44375" lon="0.04399">
        <ele>774</ele>
        <time>2017-07-31T09:30:04Z</time>
      </trkpt>
      <trkpt lat="42.44378" lon="0.044">
        <ele>773.6</ele>
        <time>2017-07-31T09:30:06Z</time>
      </trkpt>
      <trkpt lat="42.44381" lon="0.04403">
        <ele>772.3</ele>
        <time>2017-07-31T09:30:09Z</time>
      </trkpt>
      <trkpt lat="42.44384" lon="0.04405">
        <ele>771.3</ele>
        <time>2017-07-31T09:30:14Z</time>
      </trkpt>
      <trkpt lat="42.44382" lon="0.04409">
        <ele>770.2</ele>
        <time>2017-07-31T09:30:19Z</time>
      </trkpt>
      <trkpt lat="42.44379" lon="0.04408">
        <ele>769.1</ele>
        <time>2017-07-31T09:30:22Z</time>
      </trkpt>
      <trkpt lat="42.44376" lon="0.04408">
        <ele>768.1</ele>
        <time>2017-07-31T09:30:25Z</time>
      </trkpt>
      <trkpt lat="42.44374" lon="0.04411">
        <ele>767.3</ele>
        <time>2017-07-31T09:30:28Z</time>
      </trkpt>
      <trkpt lat="42.44371" lon="0.04414">
        <ele>766.7</ele>
        <time>2017-07-31T09:30:31Z</time>
      </trkpt>
      <trkpt lat="42.44373" lon="0.04419">
        <ele>766.1</ele>
        <time>2017-07-31T09:30:37Z</time>
      </trkpt>
      <trkpt lat="42.4437" lon="0.04422">
        <ele>765.6</ele>
        <time>2017-07-31T09:30:40Z</time>
      </trkpt>
      <trkpt lat="42.44367" lon="0.04423">
        <ele>765</ele>
        <time>2017-07-31T09:30:43Z</time>
      </trkpt>
      <trkpt lat="42.44364" lon="0.04424">
        <ele>764.5</ele>
        <time>2017-07-31T09:30:46Z</time>
      </trkpt>
      <trkpt lat="42.44361" lon="0.04426">
        <ele>766.7</ele>
        <time>2017-07-31T09:30:55Z</time>
      </trkpt>
      <trkpt lat="42.44365" lon="0.04429">
        <ele>768.2</ele>
        <time>2017-07-31T09:31:15Z</time>
      </trkpt>
      <trkpt lat="42.44368" lon="0.04429">
        <ele>769.2</ele>
        <time>2017-07-31T09:31:16Z</time>
      </trkpt>
      <trkpt lat="42.44371" lon="0.04429">
        <ele>770.1</ele>
        <time>2017-07-31T09:31:17Z</time>
      </trkpt>
      <trkpt lat="42.44374" lon="0.0443">
        <ele>771.1</ele>
        <time>2017-07-31T09:31:18Z</time>
      </trkpt>
      <trkpt lat="42.44377" lon="0.04429">
        <ele>772.3</ele>
        <time>2017-07-31T09:31:19Z</time>
      </trkpt>
      <trkpt lat="42.44381" lon="0.04429">
        <ele>773.9</ele>
        <time>2017-07-31T09:31:20Z</time>
      </trkpt>
      <trkpt lat="42.44385" lon="0.04428">
        <ele>775.6</ele>
        <time>2017-07-31T09:31:21Z</time>
      </trkpt>
      <trkpt lat="42.44389" lon="0.04426">
        <ele>777.2</ele>
        <time>2017-07-31T09:31:22Z</time>
      </trkpt>
      <trkpt lat="42.44393" lon="0.04424">
        <ele>778.9</ele>
        <time>2017-07-31T09:31:23Z</time>
      </trkpt>
      <trkpt lat="42.44397" lon="0.04421">
        <ele>780.7</ele>
        <time>2017-07-31T09:31:24Z</time>
      </trkpt>
      <trkpt lat="42.444" lon="0.04414">
        <ele>783.3</ele>
        <time>2017-07-31T09:31:25Z</time>
      </trkpt>
      <trkpt lat="42.44404" lon="0.04411">
        <ele>786.3</ele>
        <time>2017-07-31T09:31:26Z</time>
      </trkpt>
      <trkpt lat="42.44409" lon="0.04407">
        <ele>788</ele>
        <time>2017-07-31T09:31:27Z</time>
      </trkpt>
      <trkpt lat="42.44413" lon="0.04403">
        <ele>787.6</ele>
        <time>2017-07-31T09:31:28Z</time>
      </trkpt>
      <trkpt lat="42.44419" lon="0.04399">
        <ele>785.2</ele>
        <time>2017-07-31T09:31:29Z</time>
      </trkpt>
      <trkpt lat="42.44425" lon="0.04395">
        <ele>782.8</ele>
        <time>2017-07-31T09:31:30Z</time>
      </trkpt>
      <trkpt lat="42.44432" lon="0.04395">
        <ele>780.3</ele>
        <time>2017-07-31T09:31:31Z</time>
      </trkpt>
      <trkpt lat="42.4444" lon="0.04398">
        <ele>777.2</ele>
        <time>2017-07-31T09:31:32Z</time>
      </trkpt>
      <trkpt lat="42.44447" lon="0.04403">
        <ele>774.2</ele>
        <time>2017-07-31T09:31:33Z</time>
      </trkpt>
      <trkpt lat="42.44451" lon="0.04414">
        <ele>770.8</ele>
        <time>2017-07-31T09:31:34Z</time>
      </trkpt>
      <trkpt lat="42.44453" lon="0.04425">
        <ele>767.5</ele>
        <time>2017-07-31T09:31:35Z</time>
      </trkpt>
      <trkpt lat="42.44448" lon="0.04436">
        <ele>763.5</ele>
        <time>2017-07-31T09:31:36Z</time>
      </trkpt>
      <trkpt lat="42.44447" lon="0.04446">
        <ele>761</ele>
        <time>2017-07-31T09:31:37Z</time>
      </trkpt>
      <trkpt lat="42.44444" lon="0.04455">
        <ele>759.9</ele>
        <time>2017-07-31T09:31:38Z</time>
      </trkpt>
      <trkpt lat="42.44437" lon="0.04461">
        <ele>759.8</ele>
        <time>2017-07-31T09:31:39Z</time>
      </trkpt>
      <trkpt lat="42.4443" lon="0.04464">
        <ele>759.6</ele>
        <time>2017-07-31T09:31:40Z</time>
      </trkpt>
      <trkpt lat="42.44421" lon="0.04465">
        <ele>759.5</ele>
        <time>2017-07-31T09:31:41Z</time>
      </trkpt>
      <trkpt lat="42.44413" lon="0.04465">
        <ele>759.4</ele>
        <time>2017-07-31T09:31:42Z</time>
      </trkpt>
      <trkpt lat="42.44405" lon="0.04465">
        <ele>759.2</ele>
        <time>2017-07-31T09:31:43Z</time>
      </trkpt>
      <trkpt lat="42.44396" lon="0.04465">
        <ele>759.1</ele>
        <time>2017-07-31T09:31:44Z</time>
      </trkpt>
      <trkpt lat="42.44387" lon="0.04465">
        <ele>759</ele>
        <time>2017-07-31T09:31:45Z</time>
      </trkpt>
      <trkpt lat="42.44379" lon="0.04466">
        <ele>758.9</ele>
        <time>2017-07-31T09:31:46Z</time>
      </trkpt>
      <trkpt lat="42.44371" lon="0.04467">
        <ele>758.8</ele>
        <time>2017-07-31T09:31:47Z</time>
      </trkpt>
      <trkpt lat="42.44363" lon="0.04468">
        <ele>758.7</ele>
        <time>2017-07-31T09:31:48Z</time>
      </trkpt>
      <trkpt lat="42.44356" lon="0.0447">
        <ele>758.6</ele>
        <time>2017-07-31T09:31:49Z</time>
      </trkpt>
      <trkpt lat="42.44352" lon="0.04471">
        <ele>758.5</ele>
        <time>2017-07-31T09:31:50Z</time>
      </trkpt>
      <trkpt lat="42.44346" lon="0.04472">
        <ele>758.4</ele>
        <time>2017-07-31T09:31:51Z</time>
      </trkpt>
      <trkpt lat="42.44342" lon="0.04472">
        <ele>758.4</ele>
        <time>2017-07-31T09:31:52Z</time>
      </trkpt>
      <trkpt lat="42.44338" lon="0.04473">
        <ele>758.3</ele>
        <time>2017-07-31T09:31:53Z</time>
      </trkpt>
      <trkpt lat="42.44336" lon="0.04473">
        <ele>758.3</ele>
        <time>2017-07-31T09:31:54Z</time>
      </trkpt>
      <trkpt lat="42.44332" lon="0.04473">
        <ele>758.2</ele>
        <time>2017-07-31T09:31:55Z</time>
      </trkpt>
      <trkpt lat="42.44329" lon="0.04474">
        <ele>758.2</ele>
        <time>2017-07-31T09:31:56Z</time>
      </trkpt>
      <trkpt lat="42.44326" lon="0.04475">
        <ele>758.2</ele>
        <time>2017-07-31T09:31:58Z</time>
      </trkpt>
      <trkpt lat="42.44324" lon="0.04478">
        <ele>758.1</ele>
        <time>2017-07-31T09:31:59Z</time>
      </trkpt>
      <trkpt lat="42.44326" lon="0.04481">
        <ele>757</ele>
        <time>2017-07-31T09:32:02Z</time>
      </trkpt>
      <trkpt lat="42.44329" lon="0.04482">
        <ele>756.4</ele>
        <time>2017-07-31T09:32:04Z</time>
      </trkpt>
      <trkpt lat="42.44333" lon="0.04483">
        <ele>755.6</ele>
        <time>2017-07-31T09:32:06Z</time>
      </trkpt>
      <trkpt lat="42.44338" lon="0.04485">
        <ele>754.7</ele>
        <time>2017-07-31T09:32:08Z</time>
      </trkpt>
      <trkpt lat="42.4434" lon="0.04486">
        <ele>754.3</ele>
        <time>2017-07-31T09:32:09Z</time>
      </trkpt>
      <trkpt lat="42.44343" lon="0.04487">
        <ele>753.9</ele>
        <time>2017-07-31T09:32:10Z</time>
      </trkpt>
      <trkpt lat="42.44346" lon="0.04488">
        <ele>753.5</ele>
        <time>2017-07-31T09:32:11Z</time>
      </trkpt>
      <trkpt lat="42.44349" lon="0.04488">
        <ele>753</ele>
        <time>2017-07-31T09:32:12Z</time>
      </trkpt>
      <trkpt lat="42.44353" lon="0.04488">
        <ele>752.5</ele>
        <time>2017-07-31T09:32:13Z</time>
      </trkpt>
      <trkpt lat="42.44356" lon="0.04489">
        <ele>752.1</ele>
        <time>2017-07-31T09:32:14Z</time>
      </trkpt>
      <trkpt lat="42.44358" lon="0.0449">
        <ele>752.3</ele>
        <time>2017-07-31T09:32:15Z</time>
      </trkpt>
      <trkpt lat="42.44364" lon="0.04492">
        <ele>752.6</ele>
        <time>2017-07-31T09:32:17Z</time>
      </trkpt>
      <trkpt lat="42.44366" lon="0.04492">
        <ele>752.3</ele>
        <time>2017-07-31T09:32:18Z</time>
      </trkpt>
      <trkpt lat="42.44369" lon="0.04493">
        <ele>751.7</ele>
        <time>2017-07-31T09:32:19Z</time>
      </trkpt>
      <trkpt lat="42.44374" lon="0.04495">
        <ele>750.7</ele>
        <time>2017-07-31T09:32:21Z</time>
      </trkpt>
      <trkpt lat="42.44376" lon="0.04498">
        <ele>749.8</ele>
        <time>2017-07-31T09:32:23Z</time>
      </trkpt>
      <trkpt lat="42.44379" lon="0.04501">
        <ele>748.6</ele>
        <time>2017-07-31T09:32:25Z</time>
      </trkpt>
      <trkpt lat="42.44382" lon="0.04503">
        <ele>747.7</ele>
        <time>2017-07-31T09:32:27Z</time>
      </trkpt>
      <trkpt lat="42.44381" lon="0.04507">
        <ele>747.1</ele>
        <time>2017-07-31T09:32:29Z</time>
      </trkpt>
      <trkpt lat="42.44376" lon="0.04511">
        <ele>746.1</ele>
        <time>2017-07-31T09:32:31Z</time>
      </trkpt>
      <trkpt lat="42.44372" lon="0.04514">
        <ele>744.8</ele>
        <time>2017-07-31T09:32:33Z</time>
      </trkpt>
      <trkpt lat="42.44367" lon="0.04515">
        <ele>743.3</ele>
        <time>2017-07-31T09:32:35Z</time>
      </trkpt>
      <trkpt lat="42.44362" lon="0.04517">
        <ele>741.1</ele>
        <time>2017-07-31T09:32:37Z</time>
      </trkpt>
      <trkpt lat="42.44359" lon="0.04519">
        <ele>739.5</ele>
        <time>2017-07-31T09:32:38Z</time>
      </trkpt>
      <trkpt lat="42.44357" lon="0.04521">
        <ele>738</ele>
        <time>2017-07-31T09:32:39Z</time>
      </trkpt>
      <trkpt lat="42.44352" lon="0.04525">
        <ele>736</ele>
        <time>2017-07-31T09:32:41Z</time>
      </trkpt>
      <trkpt lat="42.4435" lon="0.04527">
        <ele>735.1</ele>
        <time>2017-07-31T09:32:42Z</time>
      </trkpt>
      <trkpt lat="42.44347" lon="0.04528">
        <ele>734.2</ele>
        <time>2017-07-31T09:32:43Z</time>
      </trkpt>
      <trkpt lat="42.44344" lon="0.04529">
        <ele>733.3</ele>
        <time>2017-07-31T09:32:44Z</time>
      </trkpt>
      <trkpt lat="42.44339" lon="0.04529">
        <ele>731.8</ele>
        <time>2017-07-31T09:32:46Z</time>
      </trkpt>
      <trkpt lat="42.44337" lon="0.04527">
        <ele>730.8</ele>
        <time>2017-07-31T09:32:57Z</time>
      </trkpt>
      <trkpt lat="42.44335" lon="0.04529">
        <ele>729.9</ele>
        <time>2017-07-31T09:33:03Z</time>
      </trkpt>
      <trkpt lat="42.44337" lon="0.04531">
        <ele>729</ele>
        <time>2017-07-31T09:33:06Z</time>
      </trkpt>
      <trkpt lat="42.4434" lon="0.04534">
        <ele>728</ele>
        <time>2017-07-31T09:33:09Z</time>
      </trkpt>
      <trkpt lat="42.44343" lon="0.04536">
        <ele>727.4</ele>
        <time>2017-07-31T09:33:11Z</time>
      </trkpt>
      <trkpt lat="42.44346" lon="0.04537">
        <ele>726.7</ele>
        <time>2017-07-31T09:33:13Z</time>
      </trkpt>
      <trkpt lat="42.44349" lon="0.04539">
        <ele>726</ele>
        <time>2017-07-31T09:33:15Z</time>
      </trkpt>
      <trkpt lat="42.44353" lon="0.04541">
        <ele>725.2</ele>
        <time>2017-07-31T09:33:17Z</time>
      </trkpt>
      <trkpt lat="42.44356" lon="0.04543">
        <ele>724.3</ele>
        <time>2017-07-31T09:33:19Z</time>
      </trkpt>
      <trkpt lat="42.44359" lon="0.04546">
        <ele>723.1</ele>
        <time>2017-07-31T09:33:21Z</time>
      </trkpt>
      <trkpt lat="42.44361" lon="0.04549">
        <ele>721.9</ele>
        <time>2017-07-31T09:33:23Z</time>
      </trkpt>
      <trkpt lat="42.44364" lon="0.04551">
        <ele>721.2</ele>
        <time>2017-07-31T09:33:25Z</time>
      </trkpt>
      <trkpt lat="42.44368" lon="0.04554">
        <ele>720.5</ele>
        <time>2017-07-31T09:33:27Z</time>
      </trkpt>
      <trkpt lat="42.4437" lon="0.04556">
        <ele>719.8</ele>
        <time>2017-07-31T09:33:29Z</time>
      </trkpt>
      <trkpt lat="42.44371" lon="0.04561">
        <ele>718.8</ele>
        <time>2017-07-31T09:33:32Z</time>
      </trkpt>
      <trkpt lat="42.44368" lon="0.04563">
        <ele>717.9</ele>
        <time>2017-07-31T09:33:34Z</time>
      </trkpt>
      <trkpt lat="42.44364" lon="0.04564">
        <ele>717.4</ele>
        <time>2017-07-31T09:33:36Z</time>
      </trkpt>
      <trkpt lat="42.44362" lon="0.04564">
        <ele>717.1</ele>
        <time>2017-07-31T09:33:37Z</time>
      </trkpt>
      <trkpt lat="42.44357" lon="0.04563">
        <ele>716.6</ele>
        <time>2017-07-31T09:33:39Z</time>
      </trkpt>
      <trkpt lat="42.44354" lon="0.04562">
        <ele>716.1</ele>
        <time>2017-07-31T09:33:42Z</time>
      </trkpt>
      <trkpt lat="42.44351" lon="0.04562">
        <ele>715.8</ele>
        <time>2017-07-31T09:33:48Z</time>
      </trkpt>
      <trkpt lat="42.44348" lon="0.04562">
        <ele>715.5</ele>
        <time>2017-07-31T09:33:55Z</time>
      </trkpt>
      <trkpt lat="42.44345" lon="0.04563">
        <ele>715.2</ele>
        <time>2017-07-31T09:34:01Z</time>
      </trkpt>
      <trkpt lat="42.44341" lon="0.04564">
        <ele>714.6</ele>
        <time>2017-07-31T09:34:08Z</time>
      </trkpt>
      <trkpt lat="42.44338" lon="0.04564">
        <ele>713.1</ele>
        <time>2017-07-31T09:34:10Z</time>
      </trkpt>
      <trkpt lat="42.44335" lon="0.04565">
        <ele>711.9</ele>
        <time>2017-07-31T09:34:19Z</time>
      </trkpt>
      <trkpt lat="42.44332" lon="0.04567">
        <ele>710.8</ele>
        <time>2017-07-31T09:34:27Z</time>
      </trkpt>
      <trkpt lat="42.44333" lon="0.04571">
        <ele>709.6</ele>
        <time>2017-07-31T09:34:33Z</time>
      </trkpt>
      <trkpt lat="42.44335" lon="0.04574">
        <ele>708.5</ele>
        <time>2017-07-31T09:34:36Z</time>
      </trkpt>
      <trkpt lat="42.44337" lon="0.04578">
        <ele>706.7</ele>
        <time>2017-07-31T09:34:39Z</time>
      </trkpt>
      <trkpt lat="42.44339" lon="0.04581">
        <ele>705.1</ele>
        <time>2017-07-31T09:34:42Z</time>
      </trkpt>
      <trkpt lat="42.44337" lon="0.04586">
        <ele>703.2</ele>
        <time>2017-07-31T09:34:45Z</time>
      </trkpt>
      <trkpt lat="42.44333" lon="0.04586">
        <ele>701.6</ele>
        <time>2017-07-31T09:34:51Z</time>
      </trkpt>
      <trkpt lat="42.4433" lon="0.04586">
        <ele>700.4</ele>
        <time>2017-07-31T09:34:54Z</time>
      </trkpt>
      <trkpt lat="42.44332" lon="0.04591">
        <ele>699.6</ele>
        <time>2017-07-31T09:35:01Z</time>
      </trkpt>
      <trkpt lat="42.44335" lon="0.04595">
        <ele>698.8</ele>
        <time>2017-07-31T09:35:03Z</time>
      </trkpt>
      <trkpt lat="42.44336" lon="0.04599">
        <ele>698.3</ele>
        <time>2017-07-31T09:35:07Z</time>
      </trkpt>
      <trkpt lat="42.44332" lon="0.046">
        <ele>697.8</ele>
        <time>2017-07-31T09:35:11Z</time>
      </trkpt>
      <trkpt lat="42.44332" lon="0.04605">
        <ele>697.3</ele>
        <time>2017-07-31T09:35:17Z</time>
      </trkpt>
      <trkpt lat="42.44335" lon="0.04607">
        <ele>696.7</ele>
        <time>2017-07-31T09:35:19Z</time>
      </trkpt>
      <trkpt lat="42.4434" lon="0.04609">
        <ele>695.7</ele>
        <time>2017-07-31T09:35:21Z</time>
      </trkpt>
      <trkpt lat="42.44343" lon="0.04611">
        <ele>695.1</ele>
        <time>2017-07-31T09:35:22Z</time>
      </trkpt>
      <trkpt lat="42.44347" lon="0.04612">
        <ele>694.1</ele>
        <time>2017-07-31T09:35:23Z</time>
      </trkpt>
      <trkpt lat="42.44351" lon="0.04614">
        <ele>693.1</ele>
        <time>2017-07-31T09:35:24Z</time>
      </trkpt>
      <trkpt lat="42.44355" lon="0.04616">
        <ele>691.8</ele>
        <time>2017-07-31T09:35:25Z</time>
      </trkpt>
      <trkpt lat="42.44359" lon="0.04618">
        <ele>690.5</ele>
        <time>2017-07-31T09:35:26Z</time>
      </trkpt>
      <trkpt lat="42.44362" lon="0.04619">
        <ele>689.5</ele>
        <time>2017-07-31T09:35:27Z</time>
      </trkpt>
      <trkpt lat="42.44365" lon="0.04621">
        <ele>688.6</ele>
        <time>2017-07-31T09:35:28Z</time>
      </trkpt>
      <trkpt lat="42.44367" lon="0.04623">
        <ele>687.6</ele>
        <time>2017-07-31T09:35:29Z</time>
      </trkpt>
      <trkpt lat="42.4437" lon="0.04627">
        <ele>686.5</ele>
        <time>2017-07-31T09:35:30Z</time>
      </trkpt>
      <trkpt lat="42.44372" lon="0.0463">
        <ele>685.4</ele>
        <time>2017-07-31T09:35:31Z</time>
      </trkpt>
      <trkpt lat="42.44375" lon="0.04632">
        <ele>684.6</ele>
        <time>2017-07-31T09:35:32Z</time>
      </trkpt>
      <trkpt lat="42.44377" lon="0.04634">
        <ele>683.6</ele>
        <time>2017-07-31T09:35:33Z</time>
      </trkpt>
      <trkpt lat="42.44381" lon="0.04637">
        <ele>681.8</ele>
        <time>2017-07-31T09:35:35Z</time>
      </trkpt>
      <trkpt lat="42.44385" lon="0.0464">
        <ele>680.2</ele>
        <time>2017-07-31T09:35:37Z</time>
      </trkpt>
      <trkpt lat="42.44389" lon="0.04645">
        <ele>678</ele>
        <time>2017-07-31T09:35:39Z</time>
      </trkpt>
      <trkpt lat="42.44391" lon="0.04647">
        <ele>676.6</ele>
        <time>2017-07-31T09:35:40Z</time>
      </trkpt>
      <trkpt lat="42.44395" lon="0.04648">
        <ele>675.7</ele>
        <time>2017-07-31T09:35:41Z</time>
      </trkpt>
      <trkpt lat="42.44397" lon="0.04649">
        <ele>674.9</ele>
        <time>2017-07-31T09:35:42Z</time>
      </trkpt>
      <trkpt lat="42.44401" lon="0.04651">
        <ele>673.5</ele>
        <time>2017-07-31T09:35:44Z</time>
      </trkpt>
      <trkpt lat="42.44405" lon="0.04654">
        <ele>671.4</ele>
        <time>2017-07-31T09:35:46Z</time>
      </trkpt>
      <trkpt lat="42.44409" lon="0.04657">
        <ele>670</ele>
        <time>2017-07-31T09:35:48Z</time>
      </trkpt>
      <trkpt lat="42.44413" lon="0.04657">
        <ele>669.9</ele>
        <time>2017-07-31T09:35:50Z</time>
      </trkpt>
      <trkpt lat="42.44416" lon="0.04655">
        <ele>669.9</ele>
        <time>2017-07-31T09:35:57Z</time>
      </trkpt>
      <trkpt lat="42.44419" lon="0.04655">
        <ele>669.9</ele>
        <time>2017-07-31T09:36:01Z</time>
      </trkpt>
      <trkpt lat="42.44422" lon="0.04657">
        <ele>669.8</ele>
        <time>2017-07-31T09:36:06Z</time>
      </trkpt>
      <trkpt lat="42.44425" lon="0.04656">
        <ele>669.8</ele>
        <time>2017-07-31T09:36:12Z</time>
      </trkpt>
      <trkpt lat="42.44427" lon="0.04653">
        <ele>669.8</ele>
        <time>2017-07-31T09:36:20Z</time>
      </trkpt>
      <trkpt lat="42.4443" lon="0.04652">
        <ele>669.7</ele>
        <time>2017-07-31T09:36:28Z</time>
      </trkpt>
      <trkpt lat="42.44433" lon="0.0465">
        <ele>669.7</ele>
        <time>2017-07-31T09:36:32Z</time>
      </trkpt>
      <trkpt lat="42.44436" lon="0.04649">
        <ele>669.7</ele>
        <time>2017-07-31T09:36:36Z</time>
      </trkpt>
      <trkpt lat="42.44439" lon="0.04652">
        <ele>669.6</ele>
        <time>2017-07-31T09:36:41Z</time>
      </trkpt>
      <trkpt lat="42.44439" lon="0.04656">
        <ele>669.6</ele>
        <time>2017-07-31T09:36:44Z</time>
      </trkpt>
      <trkpt lat="42.4444" lon="0.04661">
        <ele>669.6</ele>
        <time>2017-07-31T09:37:01Z</time>
      </trkpt>
      <trkpt lat="42.44442" lon="0.04663">
        <ele>669.6</ele>
        <time>2017-07-31T09:37:03Z</time>
      </trkpt>
      <trkpt lat="42.44445" lon="0.04664">
        <ele>669.6</ele>
        <time>2017-07-31T09:37:04Z</time>
      </trkpt>
      <trkpt lat="42.44449" lon="0.04664">
        <ele>669.5</ele>
        <time>2017-07-31T09:37:05Z</time>
      </trkpt>
      <trkpt lat="42.44452" lon="0.04663">
        <ele>669.5</ele>
        <time>2017-07-31T09:37:06Z</time>
      </trkpt>
      <trkpt lat="42.44456" lon="0.04663">
        <ele>669.5</ele>
        <time>2017-07-31T09:37:07Z</time>
      </trkpt>
      <trkpt lat="42.44461" lon="0.04663">
        <ele>669.6</ele>
        <time>2017-07-31T09:37:08Z</time>
      </trkpt>
      <trkpt lat="42.44467" lon="0.04664">
        <ele>669.6</ele>
        <time>2017-07-31T09:37:09Z</time>
      </trkpt>
      <trkpt lat="42.44472" lon="0.04665">
        <ele>669.6</ele>
        <time>2017-07-31T09:37:10Z</time>
      </trkpt>
      <trkpt lat="42.44477" lon="0.04666">
        <ele>669.7</ele>
        <time>2017-07-31T09:37:11Z</time>
      </trkpt>
      <trkpt lat="42.44483" lon="0.04667">
        <ele>669.8</ele>
        <time>2017-07-31T09:37:12Z</time>
      </trkpt>
      <trkpt lat="42.44489" lon="0.04668">
        <ele>669.9</ele>
        <time>2017-07-31T09:37:13Z</time>
      </trkpt>
      <trkpt lat="42.44495" lon="0.04669">
        <ele>670</ele>
        <time>2017-07-31T09:37:14Z</time>
      </trkpt>
      <trkpt lat="42.44501" lon="0.04671">
        <ele>669.6</ele>
        <time>2017-07-31T09:37:15Z</time>
      </trkpt>
      <trkpt lat="42.44508" lon="0.04673">
        <ele>669.2</ele>
        <time>2017-07-31T09:37:16Z</time>
      </trkpt>
      <trkpt lat="42.44514" lon="0.04674">
        <ele>668.8</ele>
        <time>2017-07-31T09:37:17Z</time>
      </trkpt>
      <trkpt lat="42.4452" lon="0.04675">
        <ele>668.5</ele>
        <time>2017-07-31T09:37:18Z</time>
      </trkpt>
      <trkpt lat="42.44526" lon="0.04676">
        <ele>668.2</ele>
        <time>2017-07-31T09:37:19Z</time>
      </trkpt>
      <trkpt lat="42.44532" lon="0.04678">
        <ele>667.9</ele>
        <time>2017-07-31T09:37:20Z</time>
      </trkpt>
      <trkpt lat="42.44538" lon="0.04679">
        <ele>667.6</ele>
        <time>2017-07-31T09:37:21Z</time>
      </trkpt>
      <trkpt lat="42.44543" lon="0.04681">
        <ele>667.3</ele>
        <time>2017-07-31T09:37:22Z</time>
      </trkpt>
      <trkpt lat="42.44549" lon="0.04682">
        <ele>667</ele>
        <time>2017-07-31T09:37:23Z</time>
      </trkpt>
      <trkpt lat="42.44554" lon="0.04684">
        <ele>666.8</ele>
        <time>2017-07-31T09:37:24Z</time>
      </trkpt>
      <trkpt lat="42.4456" lon="0.04685">
        <ele>666.5</ele>
        <time>2017-07-31T09:37:25Z</time>
      </trkpt>
      <trkpt lat="42.44565" lon="0.04686">
        <ele>666.3</ele>
        <time>2017-07-31T09:37:26Z</time>
      </trkpt>
      <trkpt lat="42.44571" lon="0.04688">
        <ele>666.1</ele>
        <time>2017-07-31T09:37:27Z</time>
      </trkpt>
      <trkpt lat="42.44576" lon="0.04689">
        <ele>665.7</ele>
        <time>2017-07-31T09:37:28Z</time>
      </trkpt>
      <trkpt lat="42.44582" lon="0.04691">
        <ele>665.3</ele>
        <time>2017-07-31T09:37:29Z</time>
      </trkpt>
      <trkpt lat="42.44587" lon="0.04692">
        <ele>665</ele>
        <time>2017-07-31T09:37:30Z</time>
      </trkpt>
      <trkpt lat="42.44592" lon="0.04694">
        <ele>664.6</ele>
        <time>2017-07-31T09:37:31Z</time>
      </trkpt>
      <trkpt lat="42.44596" lon="0.04696">
        <ele>664.2</ele>
        <time>2017-07-31T09:37:32Z</time>
      </trkpt>
      <trkpt lat="42.44601" lon="0.04699">
        <ele>663.8</ele>
        <time>2017-07-31T09:37:33Z</time>
      </trkpt>
      <trkpt lat="42.44606" lon="0.04702">
        <ele>663.4</ele>
        <time>2017-07-31T09:37:34Z</time>
      </trkpt>
      <trkpt lat="42.4461" lon="0.04705">
        <ele>663</ele>
        <time>2017-07-31T09:37:35Z</time>
      </trkpt>
      <trkpt lat="42.44615" lon="0.04707">
        <ele>662.6</ele>
        <time>2017-07-31T09:37:36Z</time>
      </trkpt>
      <trkpt lat="42.44619" lon="0.04709">
        <ele>662.6</ele>
        <time>2017-07-31T09:37:37Z</time>
      </trkpt>
      <trkpt lat="42.44624" lon="0.0471">
        <ele>663.4</ele>
        <time>2017-07-31T09:37:38Z</time>
      </trkpt>
      <trkpt lat="42.44628" lon="0.04712">
        <ele>664</ele>
        <time>2017-07-31T09:37:39Z</time>
      </trkpt>
      <trkpt lat="42.44631" lon="0.04713">
        <ele>664.2</ele>
        <time>2017-07-31T09:37:40Z</time>
      </trkpt>
      <trkpt lat="42.44634" lon="0.04718">
        <ele>664.6</ele>
        <time>2017-07-31T09:37:42Z</time>
      </trkpt>
      <trkpt lat="42.44635" lon="0.04724">
        <ele>665.3</ele>
        <time>2017-07-31T09:37:44Z</time>
      </trkpt>
      <trkpt lat="42.44635" lon="0.04728">
        <ele>665.7</ele>
        <time>2017-07-31T09:37:45Z</time>
      </trkpt>
      <trkpt lat="42.44635" lon="0.04735">
        <ele>666.1</ele>
        <time>2017-07-31T09:37:47Z</time>
      </trkpt>
      <trkpt lat="42.44635" lon="0.04742">
        <ele>666.5</ele>
        <time>2017-07-31T09:37:49Z</time>
      </trkpt>
      <trkpt lat="42.44635" lon="0.04748">
        <ele>666.9</ele>
        <time>2017-07-31T09:37:51Z</time>
      </trkpt>
      <trkpt lat="42.44635" lon="0.04754">
        <ele>667.5</ele>
        <time>2017-07-31T09:37:53Z</time>
      </trkpt>
      <trkpt lat="42.44634" lon="0.0476">
        <ele>668.1</ele>
        <time>2017-07-31T09:37:55Z</time>
      </trkpt>
      <trkpt lat="42.44634" lon="0.04766">
        <ele>668.3</ele>
        <time>2017-07-31T09:37:57Z</time>
      </trkpt>
      <trkpt lat="42.44634" lon="0.04772">
        <ele>668.7</ele>
        <time>2017-07-31T09:37:59Z</time>
      </trkpt>
      <trkpt lat="42.44633" lon="0.04777">
        <ele>669.2</ele>
        <time>2017-07-31T09:38:01Z</time>
      </trkpt>
      <trkpt lat="42.44633" lon="0.04782">
        <ele>669.9</ele>
        <time>2017-07-31T09:38:03Z</time>
      </trkpt>
      <trkpt lat="42.44634" lon="0.04787">
        <ele>670.3</ele>
        <time>2017-07-31T09:38:05Z</time>
      </trkpt>
      <trkpt lat="42.44635" lon="0.04792">
        <ele>670.5</ele>
        <time>2017-07-31T09:38:07Z</time>
      </trkpt>
      <trkpt lat="42.44637" lon="0.04797">
        <ele>670.9</ele>
        <time>2017-07-31T09:38:09Z</time>
      </trkpt>
      <trkpt lat="42.44641" lon="0.04799">
        <ele>671.2</ele>
        <time>2017-07-31T09:38:11Z</time>
      </trkpt>
      <trkpt lat="42.44645" lon="0.04799">
        <ele>671.9</ele>
        <time>2017-07-31T09:38:13Z</time>
      </trkpt>
      <trkpt lat="42.44649" lon="0.04796">
        <ele>672.2</ele>
        <time>2017-07-31T09:38:15Z</time>
      </trkpt>
      <trkpt lat="42.44651" lon="0.04791">
        <ele>672.5</ele>
        <time>2017-07-31T09:38:17Z</time>
      </trkpt>
      <trkpt lat="42.44653" lon="0.04786">
        <ele>672.7</ele>
        <time>2017-07-31T09:38:19Z</time>
      </trkpt>
      <trkpt lat="42.44653" lon="0.0478">
        <ele>673</ele>
        <time>2017-07-31T09:38:21Z</time>
      </trkpt>
      <trkpt lat="42.44654" lon="0.04775">
        <ele>673.2</ele>
        <time>2017-07-31T09:38:23Z</time>
      </trkpt>
      <trkpt lat="42.44654" lon="0.0477">
        <ele>673.7</ele>
        <time>2017-07-31T09:38:25Z</time>
      </trkpt>
      <trkpt lat="42.44655" lon="0.04765">
        <ele>674.2</ele>
        <time>2017-07-31T09:38:27Z</time>
      </trkpt>
      <trkpt lat="42.44655" lon="0.0476">
        <ele>674.5</ele>
        <time>2017-07-31T09:38:29Z</time>
      </trkpt>
      <trkpt lat="42.44656" lon="0.04755">
        <ele>674.8</ele>
        <time>2017-07-31T09:38:31Z</time>
      </trkpt>
      <trkpt lat="42.44657" lon="0.04751">
        <ele>675.1</ele>
        <time>2017-07-31T09:38:33Z</time>
      </trkpt>
      <trkpt lat="42.44657" lon="0.04746">
        <ele>675.5</ele>
        <time>2017-07-31T09:38:35Z</time>
      </trkpt>
      <trkpt lat="42.44658" lon="0.04741">
        <ele>676.3</ele>
        <time>2017-07-31T09:38:37Z</time>
      </trkpt>
      <trkpt lat="42.44659" lon="0.04737">
        <ele>676.7</ele>
        <time>2017-07-31T09:38:39Z</time>
      </trkpt>
      <trkpt lat="42.44659" lon="0.04733">
        <ele>677.2</ele>
        <time>2017-07-31T09:38:41Z</time>
      </trkpt>
      <trkpt lat="42.44659" lon="0.04728">
        <ele>677.8</ele>
        <time>2017-07-31T09:38:43Z</time>
      </trkpt>
      <trkpt lat="42.44659" lon="0.04723">
        <ele>678.2</ele>
        <time>2017-07-31T09:38:45Z</time>
      </trkpt>
      <trkpt lat="42.4466" lon="0.04719">
        <ele>678.4</ele>
        <time>2017-07-31T09:38:47Z</time>
      </trkpt>
      <trkpt lat="42.4466" lon="0.04715">
        <ele>678.6</ele>
        <time>2017-07-31T09:38:49Z</time>
      </trkpt>
      <trkpt lat="42.4466" lon="0.0471">
        <ele>678.9</ele>
        <time>2017-07-31T09:38:51Z</time>
      </trkpt>
      <trkpt lat="42.44661" lon="0.04706">
        <ele>679.2</ele>
        <time>2017-07-31T09:38:53Z</time>
      </trkpt>
      <trkpt lat="42.44661" lon="0.04701">
        <ele>679.4</ele>
        <time>2017-07-31T09:38:55Z</time>
      </trkpt>
      <trkpt lat="42.44663" lon="0.04697">
        <ele>679.9</ele>
        <time>2017-07-31T09:38:57Z</time>
      </trkpt>
      <trkpt lat="42.44664" lon="0.04694">
        <ele>680.3</ele>
        <time>2017-07-31T09:38:59Z</time>
      </trkpt>
      <trkpt lat="42.44668" lon="0.04693">
        <ele>680.7</ele>
        <time>2017-07-31T09:39:01Z</time>
      </trkpt>
      <trkpt lat="42.44672" lon="0.04695">
        <ele>680.9</ele>
        <time>2017-07-31T09:39:03Z</time>
      </trkpt>
      <trkpt lat="42.44675" lon="0.04698">
        <ele>681.1</ele>
        <time>2017-07-31T09:39:05Z</time>
      </trkpt>
      <trkpt lat="42.44676" lon="0.04703">
        <ele>681.5</ele>
        <time>2017-07-31T09:39:07Z</time>
      </trkpt>
      <trkpt lat="42.44677" lon="0.04709">
        <ele>682.2</ele>
        <time>2017-07-31T09:39:09Z</time>
      </trkpt>
      <trkpt lat="42.44677" lon="0.04714">
        <ele>682.6</ele>
        <time>2017-07-31T09:39:11Z</time>
      </trkpt>
      <trkpt lat="42.44677" lon="0.04719">
        <ele>682.8</ele>
        <time>2017-07-31T09:39:13Z</time>
      </trkpt>
      <trkpt lat="42.44677" lon="0.04724">
        <ele>683</ele>
        <time>2017-07-31T09:39:15Z</time>
      </trkpt>
      <trkpt lat="42.44677" lon="0.04729">
        <ele>683.2</ele>
        <time>2017-07-31T09:39:17Z</time>
      </trkpt>
      <trkpt lat="42.44677" lon="0.04734">
        <ele>683.6</ele>
        <time>2017-07-31T09:39:19Z</time>
      </trkpt>
      <trkpt lat="42.44677" lon="0.04739">
        <ele>684.1</ele>
        <time>2017-07-31T09:39:21Z</time>
      </trkpt>
      <trkpt lat="42.44679" lon="0.04744">
        <ele>684.5</ele>
        <time>2017-07-31T09:39:23Z</time>
      </trkpt>
      <trkpt lat="42.44681" lon="0.04747">
        <ele>684.7</ele>
        <time>2017-07-31T09:39:25Z</time>
      </trkpt>
      <trkpt lat="42.44684" lon="0.04748">
        <ele>684.9</ele>
        <time>2017-07-31T09:39:27Z</time>
      </trkpt>
      <trkpt lat="42.44688" lon="0.04745">
        <ele>685.1</ele>
        <time>2017-07-31T09:39:29Z</time>
      </trkpt>
      <trkpt lat="42.4469" lon="0.0474">
        <ele>685.4</ele>
        <time>2017-07-31T09:39:31Z</time>
      </trkpt>
      <trkpt lat="42.44691" lon="0.04734">
        <ele>686</ele>
        <time>2017-07-31T09:39:33Z</time>
      </trkpt>
      <trkpt lat="42.44691" lon="0.04729">
        <ele>686.5</ele>
        <time>2017-07-31T09:39:35Z</time>
      </trkpt>
      <trkpt lat="42.44691" lon="0.04723">
        <ele>686.8</ele>
        <time>2017-07-31T09:39:37Z</time>
      </trkpt>
      <trkpt lat="42.44691" lon="0.04718">
        <ele>687.1</ele>
        <time>2017-07-31T09:39:39Z</time>
      </trkpt>
      <trkpt lat="42.4469" lon="0.04712">
        <ele>687.5</ele>
        <time>2017-07-31T09:39:41Z</time>
      </trkpt>
      <trkpt lat="42.4469" lon="0.04707">
        <ele>687.9</ele>
        <time>2017-07-31T09:39:43Z</time>
      </trkpt>
      <trkpt lat="42.4469" lon="0.04702">
        <ele>688.5</ele>
        <time>2017-07-31T09:39:45Z</time>
      </trkpt>
      <trkpt lat="42.4469" lon="0.04697">
        <ele>688.9</ele>
        <time>2017-07-31T09:39:47Z</time>
      </trkpt>
      <trkpt lat="42.4469" lon="0.04692">
        <ele>689.1</ele>
        <time>2017-07-31T09:39:49Z</time>
      </trkpt>
      <trkpt lat="42.4469" lon="0.04687">
        <ele>689.3</ele>
        <time>2017-07-31T09:39:51Z</time>
      </trkpt>
      <trkpt lat="42.4469" lon="0.04682">
        <ele>689.5</ele>
        <time>2017-07-31T09:39:53Z</time>
      </trkpt>
      <trkpt lat="42.44691" lon="0.04677">
        <ele>689.9</ele>
        <time>2017-07-31T09:39:55Z</time>
      </trkpt>
      <trkpt lat="42.44693" lon="0.04673">
        <ele>690.6</ele>
        <time>2017-07-31T09:39:57Z</time>
      </trkpt>
      <trkpt lat="42.44697" lon="0.0467">
        <ele>690.9</ele>
        <time>2017-07-31T09:39:59Z</time>
      </trkpt>
      <trkpt lat="42.44701" lon="0.04671">
        <ele>691.2</ele>
        <time>2017-07-31T09:40:01Z</time>
      </trkpt>
      <trkpt lat="42.44704" lon="0.04675">
        <ele>691.8</ele>
        <time>2017-07-31T09:40:03Z</time>
      </trkpt>
      <trkpt lat="42.44705" lon="0.0468">
        <ele>692.5</ele>
        <time>2017-07-31T09:40:05Z</time>
      </trkpt>
      <trkpt lat="42.44705" lon="0.04686">
        <ele>692.9</ele>
        <time>2017-07-31T09:40:07Z</time>
      </trkpt>
      <trkpt lat="42.44704" lon="0.04691">
        <ele>693.1</ele>
        <time>2017-07-31T09:40:09Z</time>
      </trkpt>
      <trkpt lat="42.44704" lon="0.04696">
        <ele>693.4</ele>
        <time>2017-07-31T09:40:11Z</time>
      </trkpt>
      <trkpt lat="42.44704" lon="0.04701">
        <ele>693.7</ele>
        <time>2017-07-31T09:40:13Z</time>
      </trkpt>
      <trkpt lat="42.44703" lon="0.04705">
        <ele>694.2</ele>
        <time>2017-07-31T09:40:15Z</time>
      </trkpt>
      <trkpt lat="42.44703" lon="0.04709">
        <ele>694.7</ele>
        <time>2017-07-31T09:40:17Z</time>
      </trkpt>
      <trkpt lat="42.44704" lon="0.04714">
        <ele>694.9</ele>
        <time>2017-07-31T09:40:19Z</time>
      </trkpt>
      <trkpt lat="42.44705" lon="0.04717">
        <ele>695.1</ele>
        <time>2017-07-31T09:40:21Z</time>
      </trkpt>
      <trkpt lat="42.44707" lon="0.0472">
        <ele>695.3</ele>
        <time>2017-07-31T09:40:23Z</time>
      </trkpt>
      <trkpt lat="42.4471" lon="0.04722">
        <ele>695.6</ele>
        <time>2017-07-31T09:40:25Z</time>
      </trkpt>
      <trkpt lat="42.44713" lon="0.04723">
        <ele>696.1</ele>
        <time>2017-07-31T09:40:27Z</time>
      </trkpt>
      <trkpt lat="42.44716" lon="0.04721">
        <ele>696.6</ele>
        <time>2017-07-31T09:40:29Z</time>
      </trkpt>
      <trkpt lat="42.44719" lon="0.04719">
        <ele>696.9</ele>
        <time>2017-07-31T09:40:31Z</time>
      </trkpt>
      <trkpt lat="42.44721" lon="0.04715">
        <ele>697.1</ele>
        <time>2017-07-31T09:40:33Z</time>
      </trkpt>
      <trkpt lat="42.44722" lon="0.0471">
        <ele>697.3</ele>
        <time>2017-07-31T09:40:35Z</time>
      </trkpt>
      <trkpt lat="42.44723" lon="0.04705">
        <ele>697.6</ele>
        <time>2017-07-31T09:40:37Z</time>
      </trkpt>
      <trkpt lat="42.44724" lon="0.047">
        <ele>698</ele>
        <time>2017-07-31T09:40:39Z</time>
      </trkpt>
      <trkpt lat="42.44725" lon="0.04695">
        <ele>698.4</ele>
        <time>2017-07-31T09:40:41Z</time>
      </trkpt>
      <trkpt lat="42.44726" lon="0.0469">
        <ele>698.8</ele>
        <time>2017-07-31T09:40:43Z</time>
      </trkpt>
      <trkpt lat="42.44726" lon="0.04685">
        <ele>699.1</ele>
        <time>2017-07-31T09:40:45Z</time>
      </trkpt>
      <trkpt lat="42.44727" lon="0.0468">
        <ele>699.3</ele>
        <time>2017-07-31T09:40:47Z</time>
      </trkpt>
      <trkpt lat="42.44728" lon="0.04675">
        <ele>699.5</ele>
        <time>2017-07-31T09:40:49Z</time>
      </trkpt>
      <trkpt lat="42.44729" lon="0.04669">
        <ele>699.6</ele>
        <time>2017-07-31T09:40:51Z</time>
      </trkpt>
      <trkpt lat="42.4473" lon="0.04663">
        <ele>699.8</ele>
        <time>2017-07-31T09:40:53Z</time>
      </trkpt>
      <trkpt lat="42.4473" lon="0.04657">
        <ele>700</ele>
        <time>2017-07-31T09:40:55Z</time>
      </trkpt>
      <trkpt lat="42.4473" lon="0.04651">
        <ele>700.6</ele>
        <time>2017-07-31T09:40:57Z</time>
      </trkpt>
      <trkpt lat="42.44729" lon="0.04646">
        <ele>700.9</ele>
        <time>2017-07-31T09:40:59Z</time>
      </trkpt>
      <trkpt lat="42.44729" lon="0.0464">
        <ele>701.1</ele>
        <time>2017-07-31T09:41:01Z</time>
      </trkpt>
      <trkpt lat="42.44728" lon="0.04634">
        <ele>701.4</ele>
        <time>2017-07-31T09:41:03Z</time>
      </trkpt>
      <trkpt lat="42.44729" lon="0.04629">
        <ele>701.9</ele>
        <time>2017-07-31T09:41:05Z</time>
      </trkpt>
      <trkpt lat="42.4473" lon="0.04623">
        <ele>702.6</ele>
        <time>2017-07-31T09:41:07Z</time>
      </trkpt>
      <trkpt lat="42.44729" lon="0.04617">
        <ele>703.1</ele>
        <time>2017-07-31T09:41:09Z</time>
      </trkpt>
      <trkpt lat="42.44728" lon="0.04611">
        <ele>703.5</ele>
        <time>2017-07-31T09:41:11Z</time>
      </trkpt>
      <trkpt lat="42.44725" lon="0.04607">
        <ele>704</ele>
        <time>2017-07-31T09:41:13Z</time>
      </trkpt>
      <trkpt lat="42.44721" lon="0.04605">
        <ele>704.6</ele>
        <time>2017-07-31T09:41:15Z</time>
      </trkpt>
      <trkpt lat="42.44717" lon="0.04603">
        <ele>704.9</ele>
        <time>2017-07-31T09:41:17Z</time>
      </trkpt>
      <trkpt lat="42.44714" lon="0.04601">
        <ele>705</ele>
        <time>2017-07-31T09:41:19Z</time>
      </trkpt>
      <trkpt lat="42.4471" lon="0.04599">
        <ele>705.1</ele>
        <time>2017-07-31T09:41:21Z</time>
      </trkpt>
      <trkpt lat="42.44707" lon="0.04597">
        <ele>705.1</ele>
        <time>2017-07-31T09:41:23Z</time>
      </trkpt>
      <trkpt lat="42.44703" lon="0.04594">
        <ele>705.2</ele>
        <time>2017-07-31T09:41:25Z</time>
      </trkpt>
      <trkpt lat="42.447" lon="0.04591">
        <ele>705.2</ele>
        <time>2017-07-31T09:41:27Z</time>
      </trkpt>
      <trkpt lat="42.44697" lon="0.04588">
        <ele>705.3</ele>
        <time>2017-07-31T09:41:29Z</time>
      </trkpt>
      <trkpt lat="42.44694" lon="0.04584">
        <ele>705.3</ele>
        <time>2017-07-31T09:41:31Z</time>
      </trkpt>
      <trkpt lat="42.44691" lon="0.04579">
        <ele>705.4</ele>
        <time>2017-07-31T09:41:33Z</time>
      </trkpt>
      <trkpt lat="42.44689" lon="0.04573">
        <ele>705.5</ele>
        <time>2017-07-31T09:41:35Z</time>
      </trkpt>
      <trkpt lat="42.4469" lon="0.04566">
        <ele>705.6</ele>
        <time>2017-07-31T09:41:37Z</time>
      </trkpt>
      <trkpt lat="42.44692" lon="0.04563">
        <ele>705.6</ele>
        <time>2017-07-31T09:41:38Z</time>
      </trkpt>
      <trkpt lat="42.44694" lon="0.0456">
        <ele>705.7</ele>
        <time>2017-07-31T09:41:39Z</time>
      </trkpt>
      <trkpt lat="42.44696" lon="0.04559">
        <ele>705.7</ele>
        <time>2017-07-31T09:41:40Z</time>
      </trkpt>
      <trkpt lat="42.44699" lon="0.04558">
        <ele>705.8</ele>
        <time>2017-07-31T09:41:41Z</time>
      </trkpt>
      <trkpt lat="42.44703" lon="0.04557">
        <ele>705.9</ele>
        <time>2017-07-31T09:41:42Z</time>
      </trkpt>
      <trkpt lat="42.44706" lon="0.04556">
        <ele>706.1</ele>
        <time>2017-07-31T09:41:43Z</time>
      </trkpt>
      <trkpt lat="42.44709" lon="0.04555">
        <ele>706.3</ele>
        <time>2017-07-31T09:41:44Z</time>
      </trkpt>
      <trkpt lat="42.44712" lon="0.04554">
        <ele>706.7</ele>
        <time>2017-07-31T09:41:45Z</time>
      </trkpt>
      <trkpt lat="42.44715" lon="0.04553">
        <ele>707.1</ele>
        <time>2017-07-31T09:41:46Z</time>
      </trkpt>
      <trkpt lat="42.44719" lon="0.04552">
        <ele>707.3</ele>
        <time>2017-07-31T09:41:47Z</time>
      </trkpt>
      <trkpt lat="42.44721" lon="0.0455">
        <ele>707.5</ele>
        <time>2017-07-31T09:41:48Z</time>
      </trkpt>
      <trkpt lat="42.44724" lon="0.04548">
        <ele>707.8</ele>
        <time>2017-07-31T09:41:49Z</time>
      </trkpt>
      <trkpt lat="42.44727" lon="0.04546">
        <ele>708.1</ele>
        <time>2017-07-31T09:41:50Z</time>
      </trkpt>
      <trkpt lat="42.44729" lon="0.04544">
        <ele>708.6</ele>
        <time>2017-07-31T09:41:51Z</time>
      </trkpt>
      <trkpt lat="42.44731" lon="0.04542">
        <ele>709</ele>
        <time>2017-07-31T09:41:52Z</time>
      </trkpt>
      <trkpt lat="42.44735" lon="0.04538">
        <ele>709.4</ele>
        <time>2017-07-31T09:41:54Z</time>
      </trkpt>
      <trkpt lat="42.44739" lon="0.04535">
        <ele>709.9</ele>
        <time>2017-07-31T09:41:56Z</time>
      </trkpt>
      <trkpt lat="42.44742" lon="0.04531">
        <ele>710.5</ele>
        <time>2017-07-31T09:41:58Z</time>
      </trkpt>
      <trkpt lat="42.44745" lon="0.04528">
        <ele>711.1</ele>
        <time>2017-07-31T09:42:00Z</time>
      </trkpt>
      <trkpt lat="42.44747" lon="0.04525">
        <ele>711.4</ele>
        <time>2017-07-31T09:42:02Z</time>
      </trkpt>
      <trkpt lat="42.44749" lon="0.04523">
        <ele>711.6</ele>
        <time>2017-07-31T09:42:04Z</time>
      </trkpt>
      <trkpt lat="42.44751" lon="0.04519">
        <ele>712.2</ele>
        <time>2017-07-31T09:42:06Z</time>
      </trkpt>
      <trkpt lat="42.44753" lon="0.04515">
        <ele>713</ele>
        <time>2017-07-31T09:42:08Z</time>
      </trkpt>
      <trkpt lat="42.44755" lon="0.04512">
        <ele>713.3</ele>
        <time>2017-07-31T09:42:10Z</time>
      </trkpt>
      <trkpt lat="42.44757" lon="0.0451">
        <ele>713.6</ele>
        <time>2017-07-31T09:42:12Z</time>
      </trkpt>
      <trkpt lat="42.4476" lon="0.04507">
        <ele>714.1</ele>
        <time>2017-07-31T09:42:14Z</time>
      </trkpt>
      <trkpt lat="42.44762" lon="0.04504">
        <ele>714.8</ele>
        <time>2017-07-31T09:42:16Z</time>
      </trkpt>
      <trkpt lat="42.44763" lon="0.045">
        <ele>715.3</ele>
        <time>2017-07-31T09:42:18Z</time>
      </trkpt>
      <trkpt lat="42.44765" lon="0.04496">
        <ele>715.8</ele>
        <time>2017-07-31T09:42:20Z</time>
      </trkpt>
      <trkpt lat="42.44767" lon="0.04493">
        <ele>716.3</ele>
        <time>2017-07-31T09:42:22Z</time>
      </trkpt>
      <trkpt lat="42.44771" lon="0.04493">
        <ele>717.3</ele>
        <time>2017-07-31T09:42:25Z</time>
      </trkpt>
      <trkpt lat="42.44774" lon="0.04491">
        <ele>717.6</ele>
        <time>2017-07-31T09:42:27Z</time>
      </trkpt>
      <trkpt lat="42.44774" lon="0.04486">
        <ele>718</ele>
        <time>2017-07-31T09:42:29Z</time>
      </trkpt>
      <trkpt lat="42.44774" lon="0.04482">
        <ele>718.7</ele>
        <time>2017-07-31T09:42:31Z</time>
      </trkpt>
      <trkpt lat="42.44773" lon="0.04478">
        <ele>719.3</ele>
        <time>2017-07-31T09:42:33Z</time>
      </trkpt>
      <trkpt lat="42.44773" lon="0.04474">
        <ele>719.7</ele>
        <time>2017-07-31T09:42:35Z</time>
      </trkpt>
      <trkpt lat="42.44772" lon="0.0447">
        <ele>720.2</ele>
        <time>2017-07-31T09:42:37Z</time>
      </trkpt>
      <trkpt lat="42.44772" lon="0.04466">
        <ele>721</ele>
        <time>2017-07-31T09:42:39Z</time>
      </trkpt>
      <trkpt lat="42.44772" lon="0.04462">
        <ele>721.7</ele>
        <time>2017-07-31T09:42:41Z</time>
      </trkpt>
      <trkpt lat="42.44772" lon="0.04458">
        <ele>722.1</ele>
        <time>2017-07-31T09:42:43Z</time>
      </trkpt>
      <trkpt lat="42.44773" lon="0.04454">
        <ele>722.8</ele>
        <time>2017-07-31T09:42:45Z</time>
      </trkpt>
      <trkpt lat="42.44773" lon="0.0445">
        <ele>723.4</ele>
        <time>2017-07-31T09:42:47Z</time>
      </trkpt>
      <trkpt lat="42.44773" lon="0.04445">
        <ele>724</ele>
        <time>2017-07-31T09:42:50Z</time>
      </trkpt>
      <trkpt lat="42.44773" lon="0.0444">
        <ele>724.3</ele>
        <time>2017-07-31T09:42:53Z</time>
      </trkpt>
      <trkpt lat="42.44773" lon="0.04435">
        <ele>724.6</ele>
        <time>2017-07-31T09:42:56Z</time>
      </trkpt>
      <trkpt lat="42.44773" lon="0.0443">
        <ele>725.4</ele>
        <time>2017-07-31T09:42:59Z</time>
      </trkpt>
      <trkpt lat="42.44774" lon="0.04425">
        <ele>726.1</ele>
        <time>2017-07-31T09:43:02Z</time>
      </trkpt>
      <trkpt lat="42.44775" lon="0.04421">
        <ele>726.4</ele>
        <time>2017-07-31T09:43:05Z</time>
      </trkpt>
      <trkpt lat="42.44778" lon="0.04418">
        <ele>727.1</ele>
        <time>2017-07-31T09:43:08Z</time>
      </trkpt>
      <trkpt lat="42.44781" lon="0.04418">
        <ele>727.8</ele>
        <time>2017-07-31T09:43:10Z</time>
      </trkpt>
      <trkpt lat="42.44785" lon="0.0442">
        <ele>728.3</ele>
        <time>2017-07-31T09:43:13Z</time>
      </trkpt>
      <trkpt lat="42.44788" lon="0.04424">
        <ele>728.9</ele>
        <time>2017-07-31T09:43:16Z</time>
      </trkpt>
      <trkpt lat="42.4479" lon="0.04428">
        <ele>729.7</ele>
        <time>2017-07-31T09:43:19Z</time>
      </trkpt>
      <trkpt lat="42.44791" lon="0.04433">
        <ele>730.1</ele>
        <time>2017-07-31T09:43:22Z</time>
      </trkpt>
      <trkpt lat="42.44792" lon="0.04438">
        <ele>730.6</ele>
        <time>2017-07-31T09:43:25Z</time>
      </trkpt>
      <trkpt lat="42.44792" lon="0.04442">
        <ele>730.9</ele>
        <time>2017-07-31T09:43:28Z</time>
      </trkpt>
      <trkpt lat="42.44793" lon="0.04447">
        <ele>731.5</ele>
        <time>2017-07-31T09:43:31Z</time>
      </trkpt>
      <trkpt lat="42.44795" lon="0.04451">
        <ele>732</ele>
        <time>2017-07-31T09:43:34Z</time>
      </trkpt>
      <trkpt lat="42.44797" lon="0.04455">
        <ele>732.3</ele>
        <time>2017-07-31T09:43:37Z</time>
      </trkpt>
      <trkpt lat="42.44799" lon="0.04458">
        <ele>732.5</ele>
        <time>2017-07-31T09:43:40Z</time>
      </trkpt>
      <trkpt lat="42.44803" lon="0.04459">
        <ele>732.7</ele>
        <time>2017-07-31T09:43:43Z</time>
      </trkpt>
      <trkpt lat="42.44806" lon="0.04459">
        <ele>732.9</ele>
        <time>2017-07-31T09:43:46Z</time>
      </trkpt>
      <trkpt lat="42.44809" lon="0.04455">
        <ele>733.1</ele>
        <time>2017-07-31T09:43:49Z</time>
      </trkpt>
      <trkpt lat="42.4481" lon="0.04452">
        <ele>733.5</ele>
        <time>2017-07-31T09:43:51Z</time>
      </trkpt>
      <trkpt lat="42.44811" lon="0.04448">
        <ele>733.9</ele>
        <time>2017-07-31T09:43:53Z</time>
      </trkpt>
      <trkpt lat="42.44812" lon="0.04444">
        <ele>734.1</ele>
        <time>2017-07-31T09:43:55Z</time>
      </trkpt>
      <trkpt lat="42.44812" lon="0.04439">
        <ele>734.4</ele>
        <time>2017-07-31T09:43:58Z</time>
      </trkpt>
      <trkpt lat="42.44811" lon="0.04435">
        <ele>734.5</ele>
        <time>2017-07-31T09:44:00Z</time>
      </trkpt>
      <trkpt lat="42.4481" lon="0.04432">
        <ele>734.6</ele>
        <time>2017-07-31T09:44:02Z</time>
      </trkpt>
      <trkpt lat="42.44808" lon="0.04427">
        <ele>734.9</ele>
        <time>2017-07-31T09:44:05Z</time>
      </trkpt>
      <trkpt lat="42.44807" lon="0.04422">
        <ele>735.3</ele>
        <time>2017-07-31T09:44:08Z</time>
      </trkpt>
      <trkpt lat="42.44806" lon="0.04417">
        <ele>735.9</ele>
        <time>2017-07-31T09:44:11Z</time>
      </trkpt>
      <trkpt lat="42.44805" lon="0.04413">
        <ele>736.1</ele>
        <time>2017-07-31T09:44:13Z</time>
      </trkpt>
      <trkpt lat="42.44805" lon="0.04408">
        <ele>736.5</ele>
        <time>2017-07-31T09:44:15Z</time>
      </trkpt>
      <trkpt lat="42.44805" lon="0.04404">
        <ele>736.8</ele>
        <time>2017-07-31T09:44:17Z</time>
      </trkpt>
      <trkpt lat="42.44806" lon="0.044">
        <ele>737.2</ele>
        <time>2017-07-31T09:44:19Z</time>
      </trkpt>
      <trkpt lat="42.44808" lon="0.04397">
        <ele>737.8</ele>
        <time>2017-07-31T09:44:21Z</time>
      </trkpt>
      <trkpt lat="42.44809" lon="0.04393">
        <ele>738.1</ele>
        <time>2017-07-31T09:44:23Z</time>
      </trkpt>
      <trkpt lat="42.44811" lon="0.0439">
        <ele>738.3</ele>
        <time>2017-07-31T09:44:25Z</time>
      </trkpt>
      <trkpt lat="42.44812" lon="0.04387">
        <ele>738.5</ele>
        <time>2017-07-31T09:44:27Z</time>
      </trkpt>
      <trkpt lat="42.44814" lon="0.04383">
        <ele>738.8</ele>
        <time>2017-07-31T09:44:29Z</time>
      </trkpt>
      <trkpt lat="42.44816" lon="0.0438">
        <ele>739.1</ele>
        <time>2017-07-31T09:44:31Z</time>
      </trkpt>
      <trkpt lat="42.44818" lon="0.04377">
        <ele>739.5</ele>
        <time>2017-07-31T09:44:33Z</time>
      </trkpt>
      <trkpt lat="42.4482" lon="0.04374">
        <ele>739.9</ele>
        <time>2017-07-31T09:44:35Z</time>
      </trkpt>
      <trkpt lat="42.44823" lon="0.04371">
        <ele>740.1</ele>
        <time>2017-07-31T09:44:37Z</time>
      </trkpt>
      <trkpt lat="42.44825" lon="0.04367">
        <ele>740.4</ele>
        <time>2017-07-31T09:44:39Z</time>
      </trkpt>
      <trkpt lat="42.44827" lon="0.04363">
        <ele>740.6</ele>
        <time>2017-07-31T09:44:41Z</time>
      </trkpt>
      <trkpt lat="42.4483" lon="0.0436">
        <ele>740.8</ele>
        <time>2017-07-31T09:44:43Z</time>
      </trkpt>
      <trkpt lat="42.44832" lon="0.04357">
        <ele>741.1</ele>
        <time>2017-07-31T09:44:45Z</time>
      </trkpt>
      <trkpt lat="42.44834" lon="0.04353">
        <ele>741.3</ele>
        <time>2017-07-31T09:44:47Z</time>
      </trkpt>
      <trkpt lat="42.44837" lon="0.0435">
        <ele>741.8</ele>
        <time>2017-07-31T09:44:49Z</time>
      </trkpt>
      <trkpt lat="42.44839" lon="0.04348">
        <ele>742.3</ele>
        <time>2017-07-31T09:44:51Z</time>
      </trkpt>
      <trkpt lat="42.44842" lon="0.04345">
        <ele>742.6</ele>
        <time>2017-07-31T09:44:53Z</time>
      </trkpt>
      <trkpt lat="42.44845" lon="0.04342">
        <ele>742.9</ele>
        <time>2017-07-31T09:44:55Z</time>
      </trkpt>
      <trkpt lat="42.44848" lon="0.0434">
        <ele>743.3</ele>
        <time>2017-07-31T09:44:57Z</time>
      </trkpt>
      <trkpt lat="42.4485" lon="0.04338">
        <ele>743.8</ele>
        <time>2017-07-31T09:44:59Z</time>
      </trkpt>
      <trkpt lat="42.44853" lon="0.04335">
        <ele>744.3</ele>
        <time>2017-07-31T09:45:01Z</time>
      </trkpt>
      <trkpt lat="42.44855" lon="0.04333">
        <ele>744.7</ele>
        <time>2017-07-31T09:45:03Z</time>
      </trkpt>
      <trkpt lat="42.44858" lon="0.0433">
        <ele>745</ele>
        <time>2017-07-31T09:45:05Z</time>
      </trkpt>
      <trkpt lat="42.4486" lon="0.04327">
        <ele>745.2</ele>
        <time>2017-07-31T09:45:07Z</time>
      </trkpt>
      <trkpt lat="42.44863" lon="0.04324">
        <ele>745.4</ele>
        <time>2017-07-31T09:45:09Z</time>
      </trkpt>
      <trkpt lat="42.44865" lon="0.04322">
        <ele>745.9</ele>
        <time>2017-07-31T09:45:11Z</time>
      </trkpt>
      <trkpt lat="42.44868" lon="0.04319">
        <ele>746.3</ele>
        <time>2017-07-31T09:45:13Z</time>
      </trkpt>
      <trkpt lat="42.4487" lon="0.04316">
        <ele>746.6</ele>
        <time>2017-07-31T09:45:15Z</time>
      </trkpt>
      <trkpt lat="42.44873" lon="0.04313">
        <ele>746.9</ele>
        <time>2017-07-31T09:45:17Z</time>
      </trkpt>
      <trkpt lat="42.44875" lon="0.0431">
        <ele>747.1</ele>
        <time>2017-07-31T09:45:19Z</time>
      </trkpt>
      <trkpt lat="42.44877" lon="0.04307">
        <ele>747.4</ele>
        <time>2017-07-31T09:45:21Z</time>
      </trkpt>
      <trkpt lat="42.44879" lon="0.04304">
        <ele>748</ele>
        <time>2017-07-31T09:45:23Z</time>
      </trkpt>
      <trkpt lat="42.44881" lon="0.04301">
        <ele>748.5</ele>
        <time>2017-07-31T09:45:25Z</time>
      </trkpt>
      <trkpt lat="42.44883" lon="0.04297">
        <ele>748.7</ele>
        <time>2017-07-31T09:45:27Z</time>
      </trkpt>
      <trkpt lat="42.44885" lon="0.04294">
        <ele>748.9</ele>
        <time>2017-07-31T09:45:29Z</time>
      </trkpt>
      <trkpt lat="42.44887" lon="0.0429">
        <ele>749.1</ele>
        <time>2017-07-31T09:45:31Z</time>
      </trkpt>
      <trkpt lat="42.44888" lon="0.04287">
        <ele>749.3</ele>
        <time>2017-07-31T09:45:33Z</time>
      </trkpt>
      <trkpt lat="42.4489" lon="0.04284">
        <ele>749.5</ele>
        <time>2017-07-31T09:45:35Z</time>
      </trkpt>
      <trkpt lat="42.44891" lon="0.0428">
        <ele>749.9</ele>
        <time>2017-07-31T09:45:37Z</time>
      </trkpt>
      <trkpt lat="42.44892" lon="0.04276">
        <ele>750.5</ele>
        <time>2017-07-31T09:45:39Z</time>
      </trkpt>
      <trkpt lat="42.44892" lon="0.04272">
        <ele>750.7</ele>
        <time>2017-07-31T09:45:41Z</time>
      </trkpt>
      <trkpt lat="42.44893" lon="0.04268">
        <ele>750.9</ele>
        <time>2017-07-31T09:45:43Z</time>
      </trkpt>
      <trkpt lat="42.44893" lon="0.04264">
        <ele>751.1</ele>
        <time>2017-07-31T09:45:45Z</time>
      </trkpt>
      <trkpt lat="42.44894" lon="0.04259">
        <ele>751.4</ele>
        <time>2017-07-31T09:45:47Z</time>
      </trkpt>
      <trkpt lat="42.44894" lon="0.04256">
        <ele>751.7</ele>
        <time>2017-07-31T09:45:49Z</time>
      </trkpt>
      <trkpt lat="42.44895" lon="0.04252">
        <ele>752.3</ele>
        <time>2017-07-31T09:45:51Z</time>
      </trkpt>
      <trkpt lat="42.44896" lon="0.04248">
        <ele>752.6</ele>
        <time>2017-07-31T09:45:53Z</time>
      </trkpt>
      <trkpt lat="42.44896" lon="0.04243">
        <ele>752.8</ele>
        <time>2017-07-31T09:45:55Z</time>
      </trkpt>
      <trkpt lat="42.44896" lon="0.04239">
        <ele>753.1</ele>
        <time>2017-07-31T09:45:57Z</time>
      </trkpt>
      <trkpt lat="42.44897" lon="0.04235">
        <ele>753.3</ele>
        <time>2017-07-31T09:45:59Z</time>
      </trkpt>
      <trkpt lat="42.44897" lon="0.0423">
        <ele>753.7</ele>
        <time>2017-07-31T09:46:01Z</time>
      </trkpt>
      <trkpt lat="42.44897" lon="0.04226">
        <ele>754.3</ele>
        <time>2017-07-31T09:46:03Z</time>
      </trkpt>
      <trkpt lat="42.44897" lon="0.04221">
        <ele>754.6</ele>
        <time>2017-07-31T09:46:05Z</time>
      </trkpt>
      <trkpt lat="42.44898" lon="0.04217">
        <ele>754.9</ele>
        <time>2017-07-31T09:46:07Z</time>
      </trkpt>
      <trkpt lat="42.44897" lon="0.04213">
        <ele>755.1</ele>
        <time>2017-07-31T09:46:09Z</time>
      </trkpt>
      <trkpt lat="42.44897" lon="0.04208">
        <ele>755.3</ele>
        <time>2017-07-31T09:46:11Z</time>
      </trkpt>
      <trkpt lat="42.44897" lon="0.04204">
        <ele>755.6</ele>
        <time>2017-07-31T09:46:13Z</time>
      </trkpt>
      <trkpt lat="42.44897" lon="0.04199">
        <ele>756.2</ele>
        <time>2017-07-31T09:46:15Z</time>
      </trkpt>
      <trkpt lat="42.44896" lon="0.04195">
        <ele>756.7</ele>
        <time>2017-07-31T09:46:17Z</time>
      </trkpt>
      <trkpt lat="42.44896" lon="0.0419">
        <ele>757</ele>
        <time>2017-07-31T09:46:19Z</time>
      </trkpt>
      <trkpt lat="42.44895" lon="0.04186">
        <ele>757.2</ele>
        <time>2017-07-31T09:46:21Z</time>
      </trkpt>
      <trkpt lat="42.44894" lon="0.04182">
        <ele>757.4</ele>
        <time>2017-07-31T09:46:23Z</time>
      </trkpt>
      <trkpt lat="42.44892" lon="0.04177">
        <ele>757.5</ele>
        <time>2017-07-31T09:46:25Z</time>
      </trkpt>
      <trkpt lat="42.4489" lon="0.04173">
        <ele>757.9</ele>
        <time>2017-07-31T09:46:27Z</time>
      </trkpt>
      <trkpt lat="42.44887" lon="0.04169">
        <ele>758.4</ele>
        <time>2017-07-31T09:46:29Z</time>
      </trkpt>
      <trkpt lat="42.44884" lon="0.04165">
        <ele>758.6</ele>
        <time>2017-07-31T09:46:31Z</time>
      </trkpt>
      <trkpt lat="42.4488" lon="0.04162">
        <ele>758.8</ele>
        <time>2017-07-31T09:46:33Z</time>
      </trkpt>
      <trkpt lat="42.44876" lon="0.04159">
        <ele>758.9</ele>
        <time>2017-07-31T09:46:35Z</time>
      </trkpt>
      <trkpt lat="42.44873" lon="0.04156">
        <ele>759.1</ele>
        <time>2017-07-31T09:46:37Z</time>
      </trkpt>
      <trkpt lat="42.4487" lon="0.04151">
        <ele>759.3</ele>
        <time>2017-07-31T09:46:39Z</time>
      </trkpt>
      <trkpt lat="42.44867" lon="0.04146">
        <ele>759.4</ele>
        <time>2017-07-31T09:46:41Z</time>
      </trkpt>
      <trkpt lat="42.44866" lon="0.04141">
        <ele>759.7</ele>
        <time>2017-07-31T09:46:43Z</time>
      </trkpt>
      <trkpt lat="42.44866" lon="0.04136">
        <ele>760.3</ele>
        <time>2017-07-31T09:46:45Z</time>
      </trkpt>
      <trkpt lat="42.44866" lon="0.04131">
        <ele>760.7</ele>
        <time>2017-07-31T09:46:47Z</time>
      </trkpt>
      <trkpt lat="42.44867" lon="0.04127">
        <ele>760.9</ele>
        <time>2017-07-31T09:46:49Z</time>
      </trkpt>
      <trkpt lat="42.44868" lon="0.04123">
        <ele>761.2</ele>
        <time>2017-07-31T09:46:51Z</time>
      </trkpt>
      <trkpt lat="42.44869" lon="0.04119">
        <ele>761.6</ele>
        <time>2017-07-31T09:46:53Z</time>
      </trkpt>
      <trkpt lat="42.44869" lon="0.04115">
        <ele>762.1</ele>
        <time>2017-07-31T09:46:55Z</time>
      </trkpt>
      <trkpt lat="42.44869" lon="0.04111">
        <ele>762.6</ele>
        <time>2017-07-31T09:46:57Z</time>
      </trkpt>
      <trkpt lat="42.44869" lon="0.04107">
        <ele>762.9</ele>
        <time>2017-07-31T09:46:59Z</time>
      </trkpt>
      <trkpt lat="42.44867" lon="0.04103">
        <ele>763.2</ele>
        <time>2017-07-31T09:47:01Z</time>
      </trkpt>
      <trkpt lat="42.44865" lon="0.041">
        <ele>763.4</ele>
        <time>2017-07-31T09:47:03Z</time>
      </trkpt>
      <trkpt lat="42.44862" lon="0.04097">
        <ele>763.6</ele>
        <time>2017-07-31T09:47:05Z</time>
      </trkpt>
      <trkpt lat="42.44858" lon="0.04095">
        <ele>763.8</ele>
        <time>2017-07-31T09:47:07Z</time>
      </trkpt>
      <trkpt lat="42.44855" lon="0.04094">
        <ele>764.3</ele>
        <time>2017-07-31T09:47:09Z</time>
      </trkpt>
      <trkpt lat="42.44851" lon="0.04094">
        <ele>764.7</ele>
        <time>2017-07-31T09:47:11Z</time>
      </trkpt>
      <trkpt lat="42.44848" lon="0.04093">
        <ele>764.9</ele>
        <time>2017-07-31T09:47:13Z</time>
      </trkpt>
      <trkpt lat="42.44844" lon="0.04092">
        <ele>765.1</ele>
        <time>2017-07-31T09:47:15Z</time>
      </trkpt>
      <trkpt lat="42.44841" lon="0.04091">
        <ele>765.3</ele>
        <time>2017-07-31T09:47:17Z</time>
      </trkpt>
      <trkpt lat="42.44837" lon="0.04089">
        <ele>765.6</ele>
        <time>2017-07-31T09:47:19Z</time>
      </trkpt>
      <trkpt lat="42.44834" lon="0.04086">
        <ele>765.8</ele>
        <time>2017-07-31T09:47:21Z</time>
      </trkpt>
      <trkpt lat="42.44832" lon="0.04083">
        <ele>766</ele>
        <time>2017-07-31T09:47:23Z</time>
      </trkpt>
      <trkpt lat="42.44829" lon="0.0408">
        <ele>766.5</ele>
        <time>2017-07-31T09:47:25Z</time>
      </trkpt>
      <trkpt lat="42.44827" lon="0.04076">
        <ele>767</ele>
        <time>2017-07-31T09:47:27Z</time>
      </trkpt>
      <trkpt lat="42.44826" lon="0.04072">
        <ele>767.3</ele>
        <time>2017-07-31T09:47:29Z</time>
      </trkpt>
      <trkpt lat="42.44825" lon="0.04068">
        <ele>767.5</ele>
        <time>2017-07-31T09:47:31Z</time>
      </trkpt>
      <trkpt lat="42.44824" lon="0.04064">
        <ele>767.7</ele>
        <time>2017-07-31T09:47:33Z</time>
      </trkpt>
      <trkpt lat="42.44824" lon="0.0406">
        <ele>768</ele>
        <time>2017-07-31T09:47:35Z</time>
      </trkpt>
      <trkpt lat="42.44824" lon="0.04055">
        <ele>768.6</ele>
        <time>2017-07-31T09:47:37Z</time>
      </trkpt>
      <trkpt lat="42.44825" lon="0.04051">
        <ele>769.1</ele>
        <time>2017-07-31T09:47:39Z</time>
      </trkpt>
      <trkpt lat="42.44825" lon="0.04047">
        <ele>769.3</ele>
        <time>2017-07-31T09:47:41Z</time>
      </trkpt>
      <trkpt lat="42.44827" lon="0.04042">
        <ele>769.5</ele>
        <time>2017-07-31T09:47:43Z</time>
      </trkpt>
      <trkpt lat="42.44828" lon="0.04038">
        <ele>769.7</ele>
        <time>2017-07-31T09:47:45Z</time>
      </trkpt>
      <trkpt lat="42.44829" lon="0.04034">
        <ele>770.2</ele>
        <time>2017-07-31T09:47:47Z</time>
      </trkpt>
      <trkpt lat="42.4483" lon="0.0403">
        <ele>770.7</ele>
        <time>2017-07-31T09:47:49Z</time>
      </trkpt>
      <trkpt lat="42.44831" lon="0.04026">
        <ele>771.1</ele>
        <time>2017-07-31T09:47:51Z</time>
      </trkpt>
      <trkpt lat="42.44833" lon="0.04021">
        <ele>771.3</ele>
        <time>2017-07-31T09:47:53Z</time>
      </trkpt>
      <trkpt lat="42.44834" lon="0.04017">
        <ele>771.5</ele>
        <time>2017-07-31T09:47:55Z</time>
      </trkpt>
      <trkpt lat="42.44835" lon="0.04013">
        <ele>771.8</ele>
        <time>2017-07-31T09:47:57Z</time>
      </trkpt>
      <trkpt lat="42.44836" lon="0.04009">
        <ele>772.1</ele>
        <time>2017-07-31T09:47:59Z</time>
      </trkpt>
      <trkpt lat="42.44837" lon="0.04005">
        <ele>772.5</ele>
        <time>2017-07-31T09:48:01Z</time>
      </trkpt>
      <trkpt lat="42.44838" lon="0.04">
        <ele>772.9</ele>
        <time>2017-07-31T09:48:03Z</time>
      </trkpt>
      <trkpt lat="42.44838" lon="0.03996">
        <ele>773.2</ele>
        <time>2017-07-31T09:48:05Z</time>
      </trkpt>
      <trkpt lat="42.44837" lon="0.03992">
        <ele>773.5</ele>
        <time>2017-07-31T09:48:07Z</time>
      </trkpt>
      <trkpt lat="42.44837" lon="0.03987">
        <ele>773.7</ele>
        <time>2017-07-31T09:48:09Z</time>
      </trkpt>
      <trkpt lat="42.44836" lon="0.03983">
        <ele>773.9</ele>
        <time>2017-07-31T09:48:11Z</time>
      </trkpt>
      <trkpt lat="42.44834" lon="0.03978">
        <ele>774.1</ele>
        <time>2017-07-31T09:48:13Z</time>
      </trkpt>
      <trkpt lat="42.44834" lon="0.03974">
        <ele>774.4</ele>
        <time>2017-07-31T09:48:15Z</time>
      </trkpt>
      <trkpt lat="42.44833" lon="0.03969">
        <ele>774.9</ele>
        <time>2017-07-31T09:48:17Z</time>
      </trkpt>
      <trkpt lat="42.44833" lon="0.03964">
        <ele>775.2</ele>
        <time>2017-07-31T09:48:19Z</time>
      </trkpt>
      <trkpt lat="42.44832" lon="0.03959">
        <ele>775.4</ele>
        <time>2017-07-31T09:48:21Z</time>
      </trkpt>
      <trkpt lat="42.44832" lon="0.03954">
        <ele>775.6</ele>
        <time>2017-07-31T09:48:23Z</time>
      </trkpt>
      <trkpt lat="42.44831" lon="0.03949">
        <ele>775.7</ele>
        <time>2017-07-31T09:48:25Z</time>
      </trkpt>
      <trkpt lat="42.4483" lon="0.03943">
        <ele>775.9</ele>
        <time>2017-07-31T09:48:27Z</time>
      </trkpt>
      <trkpt lat="42.4483" lon="0.03937">
        <ele>776.1</ele>
        <time>2017-07-31T09:48:29Z</time>
      </trkpt>
      <trkpt lat="42.44829" lon="0.0393">
        <ele>776.6</ele>
        <time>2017-07-31T09:48:31Z</time>
      </trkpt>
      <trkpt lat="42.44829" lon="0.03926">
        <ele>776.9</ele>
        <time>2017-07-31T09:48:32Z</time>
      </trkpt>
      <trkpt lat="42.44828" lon="0.03922">
        <ele>777.1</ele>
        <time>2017-07-31T09:48:33Z</time>
      </trkpt>
      <trkpt lat="42.44828" lon="0.03915">
        <ele>777.4</ele>
        <time>2017-07-31T09:48:35Z</time>
      </trkpt>
      <trkpt lat="42.44827" lon="0.03909">
        <ele>779.3</ele>
        <time>2017-07-31T09:48:37Z</time>
      </trkpt>
      <trkpt lat="42.44826" lon="0.03902">
        <ele>779.5</ele>
        <time>2017-07-31T09:48:39Z</time>
      </trkpt>
      <trkpt lat="42.44826" lon="0.03895">
        <ele>779.6</ele>
        <time>2017-07-31T09:48:41Z</time>
      </trkpt>
      <trkpt lat="42.44827" lon="0.03889">
        <ele>779.6</ele>
        <time>2017-07-31T09:48:43Z</time>
      </trkpt>
      <trkpt lat="42.44828" lon="0.03882">
        <ele>779.6</ele>
        <time>2017-07-31T09:48:45Z</time>
      </trkpt>
      <trkpt lat="42.4483" lon="0.03875">
        <ele>779.6</ele>
        <time>2017-07-31T09:48:47Z</time>
      </trkpt>
      <trkpt lat="42.44832" lon="0.03869">
        <ele>779.7</ele>
        <time>2017-07-31T09:48:49Z</time>
      </trkpt>
      <trkpt lat="42.44833" lon="0.03862">
        <ele>779.7</ele>
        <time>2017-07-31T09:48:51Z</time>
      </trkpt>
      <trkpt lat="42.44832" lon="0.03856">
        <ele>779.8</ele>
        <time>2017-07-31T09:48:53Z</time>
      </trkpt>
      <trkpt lat="42.4483" lon="0.0385">
        <ele>780</ele>
        <time>2017-07-31T09:48:55Z</time>
      </trkpt>
      <trkpt lat="42.44827" lon="0.03845">
        <ele>780.4</ele>
        <time>2017-07-31T09:48:57Z</time>
      </trkpt>
      <trkpt lat="42.44824" lon="0.03842">
        <ele>781</ele>
        <time>2017-07-31T09:48:59Z</time>
      </trkpt>
      <trkpt lat="42.44821" lon="0.03838">
        <ele>781.5</ele>
        <time>2017-07-31T09:49:01Z</time>
      </trkpt>
      <trkpt lat="42.44818" lon="0.03834">
        <ele>781.8</ele>
        <time>2017-07-31T09:49:03Z</time>
      </trkpt>
      <trkpt lat="42.44816" lon="0.0383">
        <ele>781.9</ele>
        <time>2017-07-31T09:49:05Z</time>
      </trkpt>
      <trkpt lat="42.44814" lon="0.03825">
        <ele>782.1</ele>
        <time>2017-07-31T09:49:07Z</time>
      </trkpt>
      <trkpt lat="42.44814" lon="0.0382">
        <ele>782.4</ele>
        <time>2017-07-31T09:49:09Z</time>
      </trkpt>
      <trkpt lat="42.44815" lon="0.03815">
        <ele>782.6</ele>
        <time>2017-07-31T09:49:11Z</time>
      </trkpt>
      <trkpt lat="42.44818" lon="0.0381">
        <ele>783.2</ele>
        <time>2017-07-31T09:49:13Z</time>
      </trkpt>
      <trkpt lat="42.44822" lon="0.03808">
        <ele>783.5</ele>
        <time>2017-07-31T09:49:15Z</time>
      </trkpt>
      <trkpt lat="42.44827" lon="0.03806">
        <ele>783.7</ele>
        <time>2017-07-31T09:49:17Z</time>
      </trkpt>
      <trkpt lat="42.44832" lon="0.03806">
        <ele>783.9</ele>
        <time>2017-07-31T09:49:19Z</time>
      </trkpt>
      <trkpt lat="42.44837" lon="0.03806">
        <ele>784.1</ele>
        <time>2017-07-31T09:49:21Z</time>
      </trkpt>
      <trkpt lat="42.44842" lon="0.03806">
        <ele>784.3</ele>
        <time>2017-07-31T09:49:23Z</time>
      </trkpt>
      <trkpt lat="42.44845" lon="0.03807">
        <ele>784.4</ele>
        <time>2017-07-31T09:49:24Z</time>
      </trkpt>
      <trkpt lat="42.44851" lon="0.03807">
        <ele>784.6</ele>
        <time>2017-07-31T09:49:26Z</time>
      </trkpt>
      <trkpt lat="42.44856" lon="0.03808">
        <ele>784.9</ele>
        <time>2017-07-31T09:49:28Z</time>
      </trkpt>
      <trkpt lat="42.4486" lon="0.03808">
        <ele>785.5</ele>
        <time>2017-07-31T09:49:30Z</time>
      </trkpt>
      <trkpt lat="42.44865" lon="0.03808">
        <ele>785.8</ele>
        <time>2017-07-31T09:49:32Z</time>
      </trkpt>
      <trkpt lat="42.44869" lon="0.03808">
        <ele>786.1</ele>
        <time>2017-07-31T09:49:34Z</time>
      </trkpt>
      <trkpt lat="42.44873" lon="0.03807">
        <ele>786.3</ele>
        <time>2017-07-31T09:49:36Z</time>
      </trkpt>
      <trkpt lat="42.44877" lon="0.03805">
        <ele>786.6</ele>
        <time>2017-07-31T09:49:38Z</time>
      </trkpt>
      <trkpt lat="42.44881" lon="0.03803">
        <ele>786.9</ele>
        <time>2017-07-31T09:49:40Z</time>
      </trkpt>
      <trkpt lat="42.44884" lon="0.038">
        <ele>787.5</ele>
        <time>2017-07-31T09:49:42Z</time>
      </trkpt>
      <trkpt lat="42.44888" lon="0.03797">
        <ele>788</ele>
        <time>2017-07-31T09:49:44Z</time>
      </trkpt>
      <trkpt lat="42.44891" lon="0.03794">
        <ele>788.2</ele>
        <time>2017-07-31T09:49:46Z</time>
      </trkpt>
      <trkpt lat="42.44894" lon="0.03791">
        <ele>788.5</ele>
        <time>2017-07-31T09:49:48Z</time>
      </trkpt>
      <trkpt lat="42.44896" lon="0.03788">
        <ele>788.8</ele>
        <time>2017-07-31T09:49:50Z</time>
      </trkpt>
      <trkpt lat="42.44898" lon="0.03784">
        <ele>789.4</ele>
        <time>2017-07-31T09:49:52Z</time>
      </trkpt>
      <trkpt lat="42.449" lon="0.03782">
        <ele>789.9</ele>
        <time>2017-07-31T09:49:54Z</time>
      </trkpt>
      <trkpt lat="42.44903" lon="0.03779">
        <ele>790.1</ele>
        <time>2017-07-31T09:49:56Z</time>
      </trkpt>
      <trkpt lat="42.44906" lon="0.03777">
        <ele>790.4</ele>
        <time>2017-07-31T09:49:58Z</time>
      </trkpt>
      <trkpt lat="42.44909" lon="0.03775">
        <ele>790.7</ele>
        <time>2017-07-31T09:50:00Z</time>
      </trkpt>
      <trkpt lat="42.44911" lon="0.03773">
        <ele>791.1</ele>
        <time>2017-07-31T09:50:02Z</time>
      </trkpt>
      <trkpt lat="42.44914" lon="0.0377">
        <ele>791.7</ele>
        <time>2017-07-31T09:50:04Z</time>
      </trkpt>
      <trkpt lat="42.44917" lon="0.03768">
        <ele>792</ele>
        <time>2017-07-31T09:50:06Z</time>
      </trkpt>
      <trkpt lat="42.44919" lon="0.03764">
        <ele>792.3</ele>
        <time>2017-07-31T09:50:08Z</time>
      </trkpt>
      <trkpt lat="42.44921" lon="0.0376">
        <ele>792.5</ele>
        <time>2017-07-31T09:50:10Z</time>
      </trkpt>
      <trkpt lat="42.44922" lon="0.03756">
        <ele>792.6</ele>
        <time>2017-07-31T09:50:12Z</time>
      </trkpt>
      <trkpt lat="42.44922" lon="0.03751">
        <ele>792.8</ele>
        <time>2017-07-31T09:50:14Z</time>
      </trkpt>
      <trkpt lat="42.44921" lon="0.03747">
        <ele>793.1</ele>
        <time>2017-07-31T09:50:16Z</time>
      </trkpt>
      <trkpt lat="42.44919" lon="0.03743">
        <ele>793.5</ele>
        <time>2017-07-31T09:50:18Z</time>
      </trkpt>
      <trkpt lat="42.44917" lon="0.0374">
        <ele>793.9</ele>
        <time>2017-07-31T09:50:20Z</time>
      </trkpt>
      <trkpt lat="42.44915" lon="0.03737">
        <ele>794.1</ele>
        <time>2017-07-31T09:50:22Z</time>
      </trkpt>
      <trkpt lat="42.44912" lon="0.03734">
        <ele>794.3</ele>
        <time>2017-07-31T09:50:24Z</time>
      </trkpt>
      <trkpt lat="42.44909" lon="0.03731">
        <ele>794.7</ele>
        <time>2017-07-31T09:50:26Z</time>
      </trkpt>
      <trkpt lat="42.44907" lon="0.03729">
        <ele>794.9</ele>
        <time>2017-07-31T09:50:28Z</time>
      </trkpt>
      <trkpt lat="42.44904" lon="0.03726">
        <ele>795.3</ele>
        <time>2017-07-31T09:50:30Z</time>
      </trkpt>
      <trkpt lat="42.44901" lon="0.03724">
        <ele>795.8</ele>
        <time>2017-07-31T09:50:32Z</time>
      </trkpt>
      <trkpt lat="42.44898" lon="0.03721">
        <ele>796</ele>
        <time>2017-07-31T09:50:34Z</time>
      </trkpt>
      <trkpt lat="42.44896" lon="0.03718">
        <ele>796.2</ele>
        <time>2017-07-31T09:50:36Z</time>
      </trkpt>
      <trkpt lat="42.44894" lon="0.03714">
        <ele>796.4</ele>
        <time>2017-07-31T09:50:38Z</time>
      </trkpt>
      <trkpt lat="42.44893" lon="0.0371">
        <ele>796.8</ele>
        <time>2017-07-31T09:50:40Z</time>
      </trkpt>
      <trkpt lat="42.44892" lon="0.03706">
        <ele>797.1</ele>
        <time>2017-07-31T09:50:42Z</time>
      </trkpt>
      <trkpt lat="42.44892" lon="0.03702">
        <ele>797.6</ele>
        <time>2017-07-31T09:50:44Z</time>
      </trkpt>
      <trkpt lat="42.44891" lon="0.03698">
        <ele>798</ele>
        <time>2017-07-31T09:50:46Z</time>
      </trkpt>
      <trkpt lat="42.44891" lon="0.03694">
        <ele>798.3</ele>
        <time>2017-07-31T09:50:48Z</time>
      </trkpt>
      <trkpt lat="42.44891" lon="0.03689">
        <ele>798.5</ele>
        <time>2017-07-31T09:50:50Z</time>
      </trkpt>
      <trkpt lat="42.44893" lon="0.03685">
        <ele>798.8</ele>
        <time>2017-07-31T09:50:52Z</time>
      </trkpt>
      <trkpt lat="42.44894" lon="0.03681">
        <ele>799.1</ele>
        <time>2017-07-31T09:50:54Z</time>
      </trkpt>
      <trkpt lat="42.44895" lon="0.03677">
        <ele>799.7</ele>
        <time>2017-07-31T09:50:56Z</time>
      </trkpt>
      <trkpt lat="42.44897" lon="0.03673">
        <ele>800.2</ele>
        <time>2017-07-31T09:50:58Z</time>
      </trkpt>
      <trkpt lat="42.44898" lon="0.03669">
        <ele>800.5</ele>
        <time>2017-07-31T09:51:00Z</time>
      </trkpt>
      <trkpt lat="42.44899" lon="0.03665">
        <ele>800.8</ele>
        <time>2017-07-31T09:51:02Z</time>
      </trkpt>
      <trkpt lat="42.44901" lon="0.03662">
        <ele>801.1</ele>
        <time>2017-07-31T09:51:04Z</time>
      </trkpt>
      <trkpt lat="42.44903" lon="0.03658">
        <ele>801.3</ele>
        <time>2017-07-31T09:51:06Z</time>
      </trkpt>
      <trkpt lat="42.44904" lon="0.03655">
        <ele>801.9</ele>
        <time>2017-07-31T09:51:08Z</time>
      </trkpt>
      <trkpt lat="42.44906" lon="0.03652">
        <ele>802.3</ele>
        <time>2017-07-31T09:51:10Z</time>
      </trkpt>
      <trkpt lat="42.44907" lon="0.03649">
        <ele>802.6</ele>
        <time>2017-07-31T09:51:12Z</time>
      </trkpt>
      <trkpt lat="42.44909" lon="0.03646">
        <ele>803</ele>
        <time>2017-07-31T09:51:14Z</time>
      </trkpt>
      <trkpt lat="42.44911" lon="0.03643">
        <ele>803.5</ele>
        <time>2017-07-31T09:51:16Z</time>
      </trkpt>
      <trkpt lat="42.44913" lon="0.0364">
        <ele>804.1</ele>
        <time>2017-07-31T09:51:18Z</time>
      </trkpt>
      <trkpt lat="42.44916" lon="0.03637">
        <ele>804.4</ele>
        <time>2017-07-31T09:51:20Z</time>
      </trkpt>
      <trkpt lat="42.44919" lon="0.03635">
        <ele>804.6</ele>
        <time>2017-07-31T09:51:22Z</time>
      </trkpt>
      <trkpt lat="42.44923" lon="0.03633">
        <ele>804.8</ele>
        <time>2017-07-31T09:51:24Z</time>
      </trkpt>
      <trkpt lat="42.44927" lon="0.03632">
        <ele>805.1</ele>
        <time>2017-07-31T09:51:26Z</time>
      </trkpt>
      <trkpt lat="42.44931" lon="0.03631">
        <ele>805.3</ele>
        <time>2017-07-31T09:51:28Z</time>
      </trkpt>
      <trkpt lat="42.44934" lon="0.03631">
        <ele>805.8</ele>
        <time>2017-07-31T09:51:30Z</time>
      </trkpt>
      <trkpt lat="42.44938" lon="0.0363">
        <ele>806.2</ele>
        <time>2017-07-31T09:51:32Z</time>
      </trkpt>
      <trkpt lat="42.44941" lon="0.03629">
        <ele>806.4</ele>
        <time>2017-07-31T09:51:34Z</time>
      </trkpt>
      <trkpt lat="42.44944" lon="0.03629">
        <ele>806.5</ele>
        <time>2017-07-31T09:51:36Z</time>
      </trkpt>
      <trkpt lat="42.44948" lon="0.03629">
        <ele>806.6</ele>
        <time>2017-07-31T09:51:38Z</time>
      </trkpt>
      <trkpt lat="42.44951" lon="0.03629">
        <ele>806.8</ele>
        <time>2017-07-31T09:51:40Z</time>
      </trkpt>
      <trkpt lat="42.44954" lon="0.0363">
        <ele>807</ele>
        <time>2017-07-31T09:51:42Z</time>
      </trkpt>
      <trkpt lat="42.44957" lon="0.03632">
        <ele>807.2</ele>
        <time>2017-07-31T09:51:44Z</time>
      </trkpt>
      <trkpt lat="42.44959" lon="0.03635">
        <ele>807.4</ele>
        <time>2017-07-31T09:51:46Z</time>
      </trkpt>
      <trkpt lat="42.4496" lon="0.03639">
        <ele>807.8</ele>
        <time>2017-07-31T09:51:48Z</time>
      </trkpt>
      <trkpt lat="42.44958" lon="0.03644">
        <ele>808.2</ele>
        <time>2017-07-31T09:51:50Z</time>
      </trkpt>
      <trkpt lat="42.44955" lon="0.03647">
        <ele>808.4</ele>
        <time>2017-07-31T09:51:52Z</time>
      </trkpt>
      <trkpt lat="42.44952" lon="0.0365">
        <ele>808.7</ele>
        <time>2017-07-31T09:51:54Z</time>
      </trkpt>
      <trkpt lat="42.44948" lon="0.03651">
        <ele>809.1</ele>
        <time>2017-07-31T09:51:56Z</time>
      </trkpt>
      <trkpt lat="42.44944" lon="0.03652">
        <ele>809.7</ele>
        <time>2017-07-31T09:51:58Z</time>
      </trkpt>
      <trkpt lat="42.44941" lon="0.03654">
        <ele>810.1</ele>
        <time>2017-07-31T09:52:00Z</time>
      </trkpt>
      <trkpt lat="42.44938" lon="0.03656">
        <ele>810.4</ele>
        <time>2017-07-31T09:52:02Z</time>
      </trkpt>
      <trkpt lat="42.44935" lon="0.03658">
        <ele>810.6</ele>
        <time>2017-07-31T09:52:04Z</time>
      </trkpt>
      <trkpt lat="42.44932" lon="0.03662">
        <ele>810.9</ele>
        <time>2017-07-31T09:52:06Z</time>
      </trkpt>
      <trkpt lat="42.4493" lon="0.03666">
        <ele>811.1</ele>
        <time>2017-07-31T09:52:08Z</time>
      </trkpt>
      <trkpt lat="42.44928" lon="0.0367">
        <ele>811.3</ele>
        <time>2017-07-31T09:52:10Z</time>
      </trkpt>
      <trkpt lat="42.44926" lon="0.03675">
        <ele>811.5</ele>
        <time>2017-07-31T09:52:12Z</time>
      </trkpt>
      <trkpt lat="42.44926" lon="0.0368">
        <ele>812</ele>
        <time>2017-07-31T09:52:14Z</time>
      </trkpt>
      <trkpt lat="42.44927" lon="0.03686">
        <ele>812.4</ele>
        <time>2017-07-31T09:52:16Z</time>
      </trkpt>
      <trkpt lat="42.44929" lon="0.03691">
        <ele>812.5</ele>
        <time>2017-07-31T09:52:18Z</time>
      </trkpt>
      <trkpt lat="42.44932" lon="0.03695">
        <ele>812.7</ele>
        <time>2017-07-31T09:52:20Z</time>
      </trkpt>
      <trkpt lat="42.44937" lon="0.03698">
        <ele>812.7</ele>
        <time>2017-07-31T09:52:22Z</time>
      </trkpt>
      <trkpt lat="42.44942" lon="0.037">
        <ele>812.8</ele>
        <time>2017-07-31T09:52:24Z</time>
      </trkpt>
      <trkpt lat="42.44947" lon="0.03702">
        <ele>812.9</ele>
        <time>2017-07-31T09:52:26Z</time>
      </trkpt>
      <trkpt lat="42.44952" lon="0.03703">
        <ele>813</ele>
        <time>2017-07-31T09:52:28Z</time>
      </trkpt>
      <trkpt lat="42.44957" lon="0.03704">
        <ele>813.1</ele>
        <time>2017-07-31T09:52:30Z</time>
      </trkpt>
      <trkpt lat="42.44962" lon="0.03705">
        <ele>813.2</ele>
        <time>2017-07-31T09:52:32Z</time>
      </trkpt>
      <trkpt lat="42.44966" lon="0.03706">
        <ele>813.4</ele>
        <time>2017-07-31T09:52:34Z</time>
      </trkpt>
      <trkpt lat="42.44971" lon="0.03707">
        <ele>813.9</ele>
        <time>2017-07-31T09:52:36Z</time>
      </trkpt>
      <trkpt lat="42.44976" lon="0.0371">
        <ele>814.4</ele>
        <time>2017-07-31T09:52:38Z</time>
      </trkpt>
      <trkpt lat="42.4498" lon="0.03713">
        <ele>814.8</ele>
        <time>2017-07-31T09:52:40Z</time>
      </trkpt>
      <trkpt lat="42.44984" lon="0.03717">
        <ele>815</ele>
        <time>2017-07-31T09:52:42Z</time>
      </trkpt>
      <trkpt lat="42.44988" lon="0.03722">
        <ele>815.2</ele>
        <time>2017-07-31T09:52:44Z</time>
      </trkpt>
      <trkpt lat="42.44992" lon="0.03727">
        <ele>815.3</ele>
        <time>2017-07-31T09:52:46Z</time>
      </trkpt>
      <trkpt lat="42.44996" lon="0.03731">
        <ele>815.5</ele>
        <time>2017-07-31T09:52:48Z</time>
      </trkpt>
      <trkpt lat="42.45" lon="0.03736">
        <ele>815.7</ele>
        <time>2017-07-31T09:52:50Z</time>
      </trkpt>
      <trkpt lat="42.45002" lon="0.03741">
        <ele>816.1</ele>
        <time>2017-07-31T09:52:52Z</time>
      </trkpt>
      <trkpt lat="42.45005" lon="0.03747">
        <ele>816.5</ele>
        <time>2017-07-31T09:52:54Z</time>
      </trkpt>
      <trkpt lat="42.45007" lon="0.03754">
        <ele>816.8</ele>
        <time>2017-07-31T09:52:56Z</time>
      </trkpt>
      <trkpt lat="42.45007" lon="0.0376">
        <ele>816.9</ele>
        <time>2017-07-31T09:52:58Z</time>
      </trkpt>
      <trkpt lat="42.45007" lon="0.03767">
        <ele>817</ele>
        <time>2017-07-31T09:53:00Z</time>
      </trkpt>
      <trkpt lat="42.45007" lon="0.03771">
        <ele>817.1</ele>
        <time>2017-07-31T09:53:01Z</time>
      </trkpt>
      <trkpt lat="42.45006" lon="0.03775">
        <ele>817.2</ele>
        <time>2017-07-31T09:53:02Z</time>
      </trkpt>
      <trkpt lat="42.45005" lon="0.03778">
        <ele>817.3</ele>
        <time>2017-07-31T09:53:03Z</time>
      </trkpt>
      <trkpt lat="42.45004" lon="0.03782">
        <ele>817.4</ele>
        <time>2017-07-31T09:53:04Z</time>
      </trkpt>
      <trkpt lat="42.45003" lon="0.03785">
        <ele>817.5</ele>
        <time>2017-07-31T09:53:05Z</time>
      </trkpt>
      <trkpt lat="42.45002" lon="0.03789">
        <ele>817.6</ele>
        <time>2017-07-31T09:53:06Z</time>
      </trkpt>
      <trkpt lat="42.45001" lon="0.03792">
        <ele>817.7</ele>
        <time>2017-07-31T09:53:07Z</time>
      </trkpt>
      <trkpt lat="42.44999" lon="0.03795">
        <ele>818</ele>
        <time>2017-07-31T09:53:08Z</time>
      </trkpt>
      <trkpt lat="42.44998" lon="0.03798">
        <ele>818.4</ele>
        <time>2017-07-31T09:53:09Z</time>
      </trkpt>
      <trkpt lat="42.44995" lon="0.03803">
        <ele>818.9</ele>
        <time>2017-07-31T09:53:11Z</time>
      </trkpt>
      <trkpt lat="42.44991" lon="0.03808">
        <ele>819.2</ele>
        <time>2017-07-31T09:53:13Z</time>
      </trkpt>
      <trkpt lat="42.44987" lon="0.03812">
        <ele>819.5</ele>
        <time>2017-07-31T09:53:15Z</time>
      </trkpt>
      <trkpt lat="42.44982" lon="0.03816">
        <ele>819.7</ele>
        <time>2017-07-31T09:53:17Z</time>
      </trkpt>
      <trkpt lat="42.44978" lon="0.0382">
        <ele>820.3</ele>
        <time>2017-07-31T09:53:19Z</time>
      </trkpt>
      <trkpt lat="42.44974" lon="0.03824">
        <ele>820.8</ele>
        <time>2017-07-31T09:53:21Z</time>
      </trkpt>
      <trkpt lat="42.44969" lon="0.03828">
        <ele>821</ele>
        <time>2017-07-31T09:53:23Z</time>
      </trkpt>
      <trkpt lat="42.44967" lon="0.0383">
        <ele>821.1</ele>
        <time>2017-07-31T09:53:24Z</time>
      </trkpt>
      <trkpt lat="42.44965" lon="0.03833">
        <ele>821.2</ele>
        <time>2017-07-31T09:53:25Z</time>
      </trkpt>
      <trkpt lat="42.4496" lon="0.03837">
        <ele>821.4</ele>
        <time>2017-07-31T09:53:27Z</time>
      </trkpt>
      <trkpt lat="42.44958" lon="0.03839">
        <ele>821.6</ele>
        <time>2017-07-31T09:53:28Z</time>
      </trkpt>
      <trkpt lat="42.44955" lon="0.03841">
        <ele>821.7</ele>
        <time>2017-07-31T09:53:29Z</time>
      </trkpt>
      <trkpt lat="42.44953" lon="0.03843">
        <ele>821.8</ele>
        <time>2017-07-31T09:53:30Z</time>
      </trkpt>
      <trkpt lat="42.44951" lon="0.03846">
        <ele>821.9</ele>
        <time>2017-07-31T09:53:31Z</time>
      </trkpt>
      <trkpt lat="42.44948" lon="0.03848">
        <ele>822.3</ele>
        <time>2017-07-31T09:53:32Z</time>
      </trkpt>
      <trkpt lat="42.44946" lon="0.03851">
        <ele>822.6</ele>
        <time>2017-07-31T09:53:33Z</time>
      </trkpt>
      <trkpt lat="42.44944" lon="0.03854">
        <ele>822.9</ele>
        <time>2017-07-31T09:53:34Z</time>
      </trkpt>
      <trkpt lat="42.44941" lon="0.0386">
        <ele>823.1</ele>
        <time>2017-07-31T09:53:36Z</time>
      </trkpt>
      <trkpt lat="42.4494" lon="0.03863">
        <ele>823.1</ele>
        <time>2017-07-31T09:53:37Z</time>
      </trkpt>
      <trkpt lat="42.44939" lon="0.03867">
        <ele>823.2</ele>
        <time>2017-07-31T09:53:38Z</time>
      </trkpt>
      <trkpt lat="42.44938" lon="0.03871">
        <ele>823.2</ele>
        <time>2017-07-31T09:53:39Z</time>
      </trkpt>
      <trkpt lat="42.44938" lon="0.03875">
        <ele>823.3</ele>
        <time>2017-07-31T09:53:40Z</time>
      </trkpt>
      <trkpt lat="42.44938" lon="0.03879">
        <ele>823.3</ele>
        <time>2017-07-31T09:53:41Z</time>
      </trkpt>
      <trkpt lat="42.44938" lon="0.03883">
        <ele>823.4</ele>
        <time>2017-07-31T09:53:42Z</time>
      </trkpt>
      <trkpt lat="42.44938" lon="0.03887">
        <ele>823.5</ele>
        <time>2017-07-31T09:53:43Z</time>
      </trkpt>
      <trkpt lat="42.44938" lon="0.0389">
        <ele>823.5</ele>
        <time>2017-07-31T09:53:44Z</time>
      </trkpt>
      <trkpt lat="42.44939" lon="0.03894">
        <ele>823.6</ele>
        <time>2017-07-31T09:53:45Z</time>
      </trkpt>
      <trkpt lat="42.44939" lon="0.03898">
        <ele>823.7</ele>
        <time>2017-07-31T09:53:46Z</time>
      </trkpt>
      <trkpt lat="42.44939" lon="0.03905">
        <ele>823.8</ele>
        <time>2017-07-31T09:53:48Z</time>
      </trkpt>
      <trkpt lat="42.44939" lon="0.03912">
        <ele>824</ele>
        <time>2017-07-31T09:53:50Z</time>
      </trkpt>
      <trkpt lat="42.44939" lon="0.03918">
        <ele>824.5</ele>
        <time>2017-07-31T09:53:52Z</time>
      </trkpt>
      <trkpt lat="42.44939" lon="0.03924">
        <ele>825.1</ele>
        <time>2017-07-31T09:53:54Z</time>
      </trkpt>
      <trkpt lat="42.44938" lon="0.0393">
        <ele>825.3</ele>
        <time>2017-07-31T09:53:56Z</time>
      </trkpt>
      <trkpt lat="42.44938" lon="0.03936">
        <ele>825.6</ele>
        <time>2017-07-31T09:53:58Z</time>
      </trkpt>
      <trkpt lat="42.44941" lon="0.03941">
        <ele>825.9</ele>
        <time>2017-07-31T09:54:00Z</time>
      </trkpt>
      <trkpt lat="42.44945" lon="0.03944">
        <ele>826.7</ele>
        <time>2017-07-31T09:54:02Z</time>
      </trkpt>
      <trkpt lat="42.4495" lon="0.03944">
        <ele>827.2</ele>
        <time>2017-07-31T09:54:04Z</time>
      </trkpt>
      <trkpt lat="42.44953" lon="0.03939">
        <ele>827.6</ele>
        <time>2017-07-31T09:54:06Z</time>
      </trkpt>
      <trkpt lat="42.44954" lon="0.03933">
        <ele>828</ele>
        <time>2017-07-31T09:54:08Z</time>
      </trkpt>
      <trkpt lat="42.44954" lon="0.03927">
        <ele>828.4</ele>
        <time>2017-07-31T09:54:10Z</time>
      </trkpt>
      <trkpt lat="42.44954" lon="0.03922">
        <ele>829.1</ele>
        <time>2017-07-31T09:54:12Z</time>
      </trkpt>
      <trkpt lat="42.44954" lon="0.03917">
        <ele>829.5</ele>
        <time>2017-07-31T09:54:14Z</time>
      </trkpt>
      <trkpt lat="42.44954" lon="0.03913">
        <ele>829.8</ele>
        <time>2017-07-31T09:54:16Z</time>
      </trkpt>
      <trkpt lat="42.44954" lon="0.03908">
        <ele>830.1</ele>
        <time>2017-07-31T09:54:18Z</time>
      </trkpt>
      <trkpt lat="42.44954" lon="0.03903">
        <ele>830.5</ele>
        <time>2017-07-31T09:54:20Z</time>
      </trkpt>
      <trkpt lat="42.44954" lon="0.03899">
        <ele>831.1</ele>
        <time>2017-07-31T09:54:22Z</time>
      </trkpt>
      <trkpt lat="42.44955" lon="0.03894">
        <ele>831.5</ele>
        <time>2017-07-31T09:54:24Z</time>
      </trkpt>
      <trkpt lat="42.44956" lon="0.0389">
        <ele>831.8</ele>
        <time>2017-07-31T09:54:26Z</time>
      </trkpt>
      <trkpt lat="42.44957" lon="0.03885">
        <ele>832.1</ele>
        <time>2017-07-31T09:54:28Z</time>
      </trkpt>
      <trkpt lat="42.44958" lon="0.03882">
        <ele>832.5</ele>
        <time>2017-07-31T09:54:30Z</time>
      </trkpt>
      <trkpt lat="42.4496" lon="0.03878">
        <ele>833.1</ele>
        <time>2017-07-31T09:54:32Z</time>
      </trkpt>
      <trkpt lat="42.44962" lon="0.03875">
        <ele>833.6</ele>
        <time>2017-07-31T09:54:34Z</time>
      </trkpt>
      <trkpt lat="42.44963" lon="0.03872">
        <ele>833.9</ele>
        <time>2017-07-31T09:54:36Z</time>
      </trkpt>
      <trkpt lat="42.44966" lon="0.03869">
        <ele>834.3</ele>
        <time>2017-07-31T09:54:38Z</time>
      </trkpt>
      <trkpt lat="42.44968" lon="0.03866">
        <ele>834.8</ele>
        <time>2017-07-31T09:54:40Z</time>
      </trkpt>
      <trkpt lat="42.4497" lon="0.03863">
        <ele>835.2</ele>
        <time>2017-07-31T09:54:42Z</time>
      </trkpt>
      <trkpt lat="42.44973" lon="0.03861">
        <ele>835.5</ele>
        <time>2017-07-31T09:54:44Z</time>
      </trkpt>
      <trkpt lat="42.44976" lon="0.03858">
        <ele>835.8</ele>
        <time>2017-07-31T09:54:46Z</time>
      </trkpt>
      <trkpt lat="42.44979" lon="0.03856">
        <ele>836</ele>
        <time>2017-07-31T09:54:48Z</time>
      </trkpt>
      <trkpt lat="42.44982" lon="0.03855">
        <ele>836.4</ele>
        <time>2017-07-31T09:54:50Z</time>
      </trkpt>
      <trkpt lat="42.44985" lon="0.03853">
        <ele>836.9</ele>
        <time>2017-07-31T09:54:52Z</time>
      </trkpt>
      <trkpt lat="42.44988" lon="0.03851">
        <ele>837.3</ele>
        <time>2017-07-31T09:54:54Z</time>
      </trkpt>
      <trkpt lat="42.44992" lon="0.0385">
        <ele>837.5</ele>
        <time>2017-07-31T09:54:56Z</time>
      </trkpt>
      <trkpt lat="42.44996" lon="0.03848">
        <ele>837.7</ele>
        <time>2017-07-31T09:54:58Z</time>
      </trkpt>
      <trkpt lat="42.45" lon="0.03847">
        <ele>837.9</ele>
        <time>2017-07-31T09:55:00Z</time>
      </trkpt>
      <trkpt lat="42.45004" lon="0.03846">
        <ele>838.2</ele>
        <time>2017-07-31T09:55:02Z</time>
      </trkpt>
      <trkpt lat="42.45008" lon="0.03845">
        <ele>838.3</ele>
        <time>2017-07-31T09:55:04Z</time>
      </trkpt>
      <trkpt lat="42.45012" lon="0.03844">
        <ele>838.5</ele>
        <time>2017-07-31T09:55:06Z</time>
      </trkpt>
      <trkpt lat="42.45016" lon="0.03842">
        <ele>839</ele>
        <time>2017-07-31T09:55:08Z</time>
      </trkpt>
      <trkpt lat="42.45021" lon="0.0384">
        <ele>839.4</ele>
        <time>2017-07-31T09:55:10Z</time>
      </trkpt>
      <trkpt lat="42.45026" lon="0.03837">
        <ele>839.6</ele>
        <time>2017-07-31T09:55:12Z</time>
      </trkpt>
      <trkpt lat="42.45029" lon="0.03836">
        <ele>839.6</ele>
        <time>2017-07-31T09:55:13Z</time>
      </trkpt>
      <trkpt lat="42.45031" lon="0.03834">
        <ele>839.7</ele>
        <time>2017-07-31T09:55:14Z</time>
      </trkpt>
      <trkpt lat="42.45036" lon="0.03831">
        <ele>839.8</ele>
        <time>2017-07-31T09:55:16Z</time>
      </trkpt>
      <trkpt lat="42.4504" lon="0.03827">
        <ele>839.9</ele>
        <time>2017-07-31T09:55:18Z</time>
      </trkpt>
      <trkpt lat="42.45043" lon="0.03822">
        <ele>840.1</ele>
        <time>2017-07-31T09:55:20Z</time>
      </trkpt>
      <trkpt lat="42.45046" lon="0.03817">
        <ele>840.2</ele>
        <time>2017-07-31T09:55:22Z</time>
      </trkpt>
      <trkpt lat="42.45049" lon="0.03812">
        <ele>840.3</ele>
        <time>2017-07-31T09:55:24Z</time>
      </trkpt>
      <trkpt lat="42.45051" lon="0.03806">
        <ele>840.5</ele>
        <time>2017-07-31T09:55:26Z</time>
      </trkpt>
      <trkpt lat="42.45053" lon="0.038">
        <ele>840.8</ele>
        <time>2017-07-31T09:55:28Z</time>
      </trkpt>
      <trkpt lat="42.45055" lon="0.03794">
        <ele>841.3</ele>
        <time>2017-07-31T09:55:30Z</time>
      </trkpt>
      <trkpt lat="42.45058" lon="0.03789">
        <ele>841.6</ele>
        <time>2017-07-31T09:55:32Z</time>
      </trkpt>
      <trkpt lat="42.4506" lon="0.03784">
        <ele>841.8</ele>
        <time>2017-07-31T09:55:34Z</time>
      </trkpt>
      <trkpt lat="42.45063" lon="0.03778">
        <ele>842</ele>
        <time>2017-07-31T09:55:36Z</time>
      </trkpt>
      <trkpt lat="42.45065" lon="0.03773">
        <ele>842.2</ele>
        <time>2017-07-31T09:55:38Z</time>
      </trkpt>
      <trkpt lat="42.45067" lon="0.03768">
        <ele>842.4</ele>
        <time>2017-07-31T09:55:40Z</time>
      </trkpt>
      <trkpt lat="42.45069" lon="0.03763">
        <ele>842.9</ele>
        <time>2017-07-31T09:55:42Z</time>
      </trkpt>
      <trkpt lat="42.45071" lon="0.03758">
        <ele>843.5</ele>
        <time>2017-07-31T09:55:44Z</time>
      </trkpt>
      <trkpt lat="42.45072" lon="0.03753">
        <ele>843.9</ele>
        <time>2017-07-31T09:55:46Z</time>
      </trkpt>
      <trkpt lat="42.45073" lon="0.03747">
        <ele>844.2</ele>
        <time>2017-07-31T09:55:48Z</time>
      </trkpt>
      <trkpt lat="42.45074" lon="0.03742">
        <ele>844.5</ele>
        <time>2017-07-31T09:55:50Z</time>
      </trkpt>
      <trkpt lat="42.45075" lon="0.03737">
        <ele>844.8</ele>
        <time>2017-07-31T09:55:52Z</time>
      </trkpt>
      <trkpt lat="42.45076" lon="0.03732">
        <ele>845.3</ele>
        <time>2017-07-31T09:55:54Z</time>
      </trkpt>
      <trkpt lat="42.45077" lon="0.03728">
        <ele>845.7</ele>
        <time>2017-07-31T09:55:56Z</time>
      </trkpt>
      <trkpt lat="42.45079" lon="0.03723">
        <ele>846</ele>
        <time>2017-07-31T09:55:58Z</time>
      </trkpt>
      <trkpt lat="42.4508" lon="0.03719">
        <ele>846.3</ele>
        <time>2017-07-31T09:56:00Z</time>
      </trkpt>
      <trkpt lat="42.45083" lon="0.03715">
        <ele>846.6</ele>
        <time>2017-07-31T09:56:02Z</time>
      </trkpt>
      <trkpt lat="42.45085" lon="0.03711">
        <ele>846.9</ele>
        <time>2017-07-31T09:56:04Z</time>
      </trkpt>
      <trkpt lat="42.45088" lon="0.03707">
        <ele>847.6</ele>
        <time>2017-07-31T09:56:06Z</time>
      </trkpt>
      <trkpt lat="42.45091" lon="0.03703">
        <ele>848.1</ele>
        <time>2017-07-31T09:56:08Z</time>
      </trkpt>
      <trkpt lat="42.45095" lon="0.037">
        <ele>848.4</ele>
        <time>2017-07-31T09:56:10Z</time>
      </trkpt>
      <trkpt lat="42.45098" lon="0.03698">
        <ele>848.6</ele>
        <time>2017-07-31T09:56:12Z</time>
      </trkpt>
      <trkpt lat="42.45102" lon="0.03695">
        <ele>848.9</ele>
        <time>2017-07-31T09:56:14Z</time>
      </trkpt>
      <trkpt lat="42.45105" lon="0.03693">
        <ele>849.5</ele>
        <time>2017-07-31T09:56:16Z</time>
      </trkpt>
      <trkpt lat="42.45109" lon="0.03691">
        <ele>849.9</ele>
        <time>2017-07-31T09:56:18Z</time>
      </trkpt>
      <trkpt lat="42.45112" lon="0.03688">
        <ele>850.1</ele>
        <time>2017-07-31T09:56:20Z</time>
      </trkpt>
      <trkpt lat="42.45116" lon="0.03686">
        <ele>850.4</ele>
        <time>2017-07-31T09:56:22Z</time>
      </trkpt>
      <trkpt lat="42.45119" lon="0.03683">
        <ele>850.6</ele>
        <time>2017-07-31T09:56:24Z</time>
      </trkpt>
      <trkpt lat="42.45122" lon="0.03679">
        <ele>850.9</ele>
        <time>2017-07-31T09:56:26Z</time>
      </trkpt>
      <trkpt lat="42.45125" lon="0.03675">
        <ele>851.4</ele>
        <time>2017-07-31T09:56:28Z</time>
      </trkpt>
      <trkpt lat="42.45128" lon="0.03671">
        <ele>851.9</ele>
        <time>2017-07-31T09:56:30Z</time>
      </trkpt>
      <trkpt lat="42.4513" lon="0.03667">
        <ele>852.1</ele>
        <time>2017-07-31T09:56:32Z</time>
      </trkpt>
      <trkpt lat="42.45132" lon="0.03663">
        <ele>852.3</ele>
        <time>2017-07-31T09:56:34Z</time>
      </trkpt>
      <trkpt lat="42.45134" lon="0.03658">
        <ele>852.5</ele>
        <time>2017-07-31T09:56:36Z</time>
      </trkpt>
      <trkpt lat="42.45135" lon="0.03652">
        <ele>852.6</ele>
        <time>2017-07-31T09:56:38Z</time>
      </trkpt>
      <trkpt lat="42.45135" lon="0.03647">
        <ele>852.9</ele>
        <time>2017-07-31T09:56:40Z</time>
      </trkpt>
      <trkpt lat="42.45135" lon="0.03641">
        <ele>853.1</ele>
        <time>2017-07-31T09:56:42Z</time>
      </trkpt>
      <trkpt lat="42.45134" lon="0.03636">
        <ele>853.6</ele>
        <time>2017-07-31T09:56:44Z</time>
      </trkpt>
      <trkpt lat="42.45133" lon="0.03632">
        <ele>854</ele>
        <time>2017-07-31T09:56:46Z</time>
      </trkpt>
      <trkpt lat="42.45131" lon="0.03628">
        <ele>854.3</ele>
        <time>2017-07-31T09:56:48Z</time>
      </trkpt>
      <trkpt lat="42.45129" lon="0.03624">
        <ele>854.6</ele>
        <time>2017-07-31T09:56:50Z</time>
      </trkpt>
      <trkpt lat="42.45127" lon="0.0362">
        <ele>854.9</ele>
        <time>2017-07-31T09:56:52Z</time>
      </trkpt>
      <trkpt lat="42.45126" lon="0.03617">
        <ele>855.2</ele>
        <time>2017-07-31T09:56:54Z</time>
      </trkpt>
      <trkpt lat="42.45124" lon="0.03613">
        <ele>855.7</ele>
        <time>2017-07-31T09:56:56Z</time>
      </trkpt>
      <trkpt lat="42.45122" lon="0.0361">
        <ele>856</ele>
        <time>2017-07-31T09:56:58Z</time>
      </trkpt>
      <trkpt lat="42.45121" lon="0.03605">
        <ele>856.3</ele>
        <time>2017-07-31T09:57:00Z</time>
      </trkpt>
      <trkpt lat="42.45121" lon="0.03601">
        <ele>856.5</ele>
        <time>2017-07-31T09:57:02Z</time>
      </trkpt>
      <trkpt lat="42.45122" lon="0.03595">
        <ele>856.7</ele>
        <time>2017-07-31T09:57:04Z</time>
      </trkpt>
      <trkpt lat="42.45124" lon="0.0359">
        <ele>857</ele>
        <time>2017-07-31T09:57:06Z</time>
      </trkpt>
      <trkpt lat="42.45125" lon="0.03584">
        <ele>857.5</ele>
        <time>2017-07-31T09:57:08Z</time>
      </trkpt>
      <trkpt lat="42.45125" lon="0.03577">
        <ele>857.9</ele>
        <time>2017-07-31T09:57:10Z</time>
      </trkpt>
      <trkpt lat="42.45124" lon="0.03572">
        <ele>858</ele>
        <time>2017-07-31T09:57:12Z</time>
      </trkpt>
      <trkpt lat="42.45123" lon="0.03566">
        <ele>858.1</ele>
        <time>2017-07-31T09:57:14Z</time>
      </trkpt>
      <trkpt lat="42.45121" lon="0.03561">
        <ele>858.2</ele>
        <time>2017-07-31T09:57:16Z</time>
      </trkpt>
      <trkpt lat="42.45119" lon="0.03556">
        <ele>858.3</ele>
        <time>2017-07-31T09:57:18Z</time>
      </trkpt>
      <trkpt lat="42.45116" lon="0.03551">
        <ele>858.5</ele>
        <time>2017-07-31T09:57:20Z</time>
      </trkpt>
      <trkpt lat="42.45114" lon="0.03545">
        <ele>858.6</ele>
        <time>2017-07-31T09:57:22Z</time>
      </trkpt>
      <trkpt lat="42.45112" lon="0.0354">
        <ele>858.7</ele>
        <time>2017-07-31T09:57:24Z</time>
      </trkpt>
      <trkpt lat="42.45109" lon="0.03535">
        <ele>858.8</ele>
        <time>2017-07-31T09:57:26Z</time>
      </trkpt>
      <trkpt lat="42.45107" lon="0.0353">
        <ele>858.9</ele>
        <time>2017-07-31T09:57:28Z</time>
      </trkpt>
      <trkpt lat="42.45105" lon="0.03525">
        <ele>859</ele>
        <time>2017-07-31T09:57:30Z</time>
      </trkpt>
      <trkpt lat="42.45103" lon="0.03521">
        <ele>859.2</ele>
        <time>2017-07-31T09:57:32Z</time>
      </trkpt>
      <trkpt lat="42.45101" lon="0.03516">
        <ele>859.4</ele>
        <time>2017-07-31T09:57:34Z</time>
      </trkpt>
      <trkpt lat="42.45099" lon="0.03512">
        <ele>859.9</ele>
        <time>2017-07-31T09:57:36Z</time>
      </trkpt>
      <trkpt lat="42.45098" lon="0.03507">
        <ele>860.3</ele>
        <time>2017-07-31T09:57:38Z</time>
      </trkpt>
      <trkpt lat="42.45097" lon="0.03503">
        <ele>860.6</ele>
        <time>2017-07-31T09:57:40Z</time>
      </trkpt>
      <trkpt lat="42.45095" lon="0.03498">
        <ele>860.9</ele>
        <time>2017-07-31T09:57:42Z</time>
      </trkpt>
      <trkpt lat="42.45094" lon="0.03494">
        <ele>861.1</ele>
        <time>2017-07-31T09:57:44Z</time>
      </trkpt>
      <trkpt lat="42.45092" lon="0.0349">
        <ele>861.2</ele>
        <time>2017-07-31T09:57:46Z</time>
      </trkpt>
      <trkpt lat="42.45091" lon="0.03486">
        <ele>861.7</ele>
        <time>2017-07-31T09:57:48Z</time>
      </trkpt>
      <trkpt lat="42.45089" lon="0.03482">
        <ele>862.2</ele>
        <time>2017-07-31T09:57:50Z</time>
      </trkpt>
      <trkpt lat="42.45088" lon="0.03478">
        <ele>862.6</ele>
        <time>2017-07-31T09:57:52Z</time>
      </trkpt>
      <trkpt lat="42.45086" lon="0.03474">
        <ele>862.9</ele>
        <time>2017-07-31T09:57:54Z</time>
      </trkpt>
      <trkpt lat="42.45084" lon="0.0347">
        <ele>863.2</ele>
        <time>2017-07-31T09:57:56Z</time>
      </trkpt>
      <trkpt lat="42.45083" lon="0.03466">
        <ele>863.4</ele>
        <time>2017-07-31T09:57:58Z</time>
      </trkpt>
      <trkpt lat="42.45082" lon="0.03461">
        <ele>863.9</ele>
        <time>2017-07-31T09:58:00Z</time>
      </trkpt>
      <trkpt lat="42.4508" lon="0.03457">
        <ele>864.5</ele>
        <time>2017-07-31T09:58:02Z</time>
      </trkpt>
      <trkpt lat="42.45079" lon="0.03453">
        <ele>864.7</ele>
        <time>2017-07-31T09:58:04Z</time>
      </trkpt>
      <trkpt lat="42.45077" lon="0.03449">
        <ele>864.9</ele>
        <time>2017-07-31T09:58:06Z</time>
      </trkpt>
      <trkpt lat="42.45075" lon="0.03445">
        <ele>865.2</ele>
        <time>2017-07-31T09:58:08Z</time>
      </trkpt>
      <trkpt lat="42.45073" lon="0.03441">
        <ele>865.7</ele>
        <time>2017-07-31T09:58:10Z</time>
      </trkpt>
      <trkpt lat="42.45071" lon="0.03437">
        <ele>866.2</ele>
        <time>2017-07-31T09:58:12Z</time>
      </trkpt>
      <trkpt lat="42.45069" lon="0.03434">
        <ele>866.5</ele>
        <time>2017-07-31T09:58:14Z</time>
      </trkpt>
      <trkpt lat="42.45067" lon="0.0343">
        <ele>866.8</ele>
        <time>2017-07-31T09:58:16Z</time>
      </trkpt>
      <trkpt lat="42.45065" lon="0.03427">
        <ele>867.1</ele>
        <time>2017-07-31T09:58:18Z</time>
      </trkpt>
      <trkpt lat="42.45063" lon="0.03424">
        <ele>867.5</ele>
        <time>2017-07-31T09:58:20Z</time>
      </trkpt>
      <trkpt lat="42.45061" lon="0.03421">
        <ele>868.1</ele>
        <time>2017-07-31T09:58:22Z</time>
      </trkpt>
      <trkpt lat="42.45058" lon="0.03419">
        <ele>868.5</ele>
        <time>2017-07-31T09:58:24Z</time>
      </trkpt>
      <trkpt lat="42.45056" lon="0.03416">
        <ele>868.7</ele>
        <time>2017-07-31T09:58:26Z</time>
      </trkpt>
      <trkpt lat="42.45054" lon="0.03412">
        <ele>868.9</ele>
        <time>2017-07-31T09:58:28Z</time>
      </trkpt>
      <trkpt lat="42.45053" lon="0.03409">
        <ele>869.1</ele>
        <time>2017-07-31T09:58:30Z</time>
      </trkpt>
      <trkpt lat="42.45051" lon="0.03405">
        <ele>869.5</ele>
        <time>2017-07-31T09:58:32Z</time>
      </trkpt>
      <trkpt lat="42.45049" lon="0.03402">
        <ele>870</ele>
        <time>2017-07-31T09:58:34Z</time>
      </trkpt>
      <trkpt lat="42.45047" lon="0.03398">
        <ele>870.4</ele>
        <time>2017-07-31T09:58:36Z</time>
      </trkpt>
      <trkpt lat="42.45045" lon="0.03394">
        <ele>870.7</ele>
        <time>2017-07-31T09:58:38Z</time>
      </trkpt>
      <trkpt lat="42.45044" lon="0.03391">
        <ele>871</ele>
        <time>2017-07-31T09:58:40Z</time>
      </trkpt>
      <trkpt lat="42.45043" lon="0.03387">
        <ele>871.4</ele>
        <time>2017-07-31T09:58:42Z</time>
      </trkpt>
      <trkpt lat="42.45042" lon="0.03384">
        <ele>871.9</ele>
        <time>2017-07-31T09:58:44Z</time>
      </trkpt>
      <trkpt lat="42.4504" lon="0.0338">
        <ele>872.4</ele>
        <time>2017-07-31T09:58:46Z</time>
      </trkpt>
      <trkpt lat="42.45039" lon="0.03377">
        <ele>872.7</ele>
        <time>2017-07-31T09:58:48Z</time>
      </trkpt>
      <trkpt lat="42.45037" lon="0.03374">
        <ele>872.9</ele>
        <time>2017-07-31T09:58:50Z</time>
      </trkpt>
      <trkpt lat="42.45036" lon="0.0337">
        <ele>873.2</ele>
        <time>2017-07-31T09:58:52Z</time>
      </trkpt>
      <trkpt lat="42.45034" lon="0.03367">
        <ele>873.4</ele>
        <time>2017-07-31T09:58:54Z</time>
      </trkpt>
      <trkpt lat="42.45032" lon="0.03364">
        <ele>873.9</ele>
        <time>2017-07-31T09:58:56Z</time>
      </trkpt>
      <trkpt lat="42.4503" lon="0.03361">
        <ele>874.4</ele>
        <time>2017-07-31T09:58:58Z</time>
      </trkpt>
      <trkpt lat="42.45029" lon="0.03358">
        <ele>874.8</ele>
        <time>2017-07-31T09:59:00Z</time>
      </trkpt>
      <trkpt lat="42.45027" lon="0.03354">
        <ele>875.1</ele>
        <time>2017-07-31T09:59:02Z</time>
      </trkpt>
      <trkpt lat="42.45025" lon="0.0335">
        <ele>875.4</ele>
        <time>2017-07-31T09:59:04Z</time>
      </trkpt>
      <trkpt lat="42.45024" lon="0.03347">
        <ele>875.7</ele>
        <time>2017-07-31T09:59:06Z</time>
      </trkpt>
      <trkpt lat="42.45022" lon="0.03344">
        <ele>876.2</ele>
        <time>2017-07-31T09:59:08Z</time>
      </trkpt>
      <trkpt lat="42.4502" lon="0.0334">
        <ele>876.6</ele>
        <time>2017-07-31T09:59:10Z</time>
      </trkpt>
      <trkpt lat="42.45019" lon="0.03336">
        <ele>876.8</ele>
        <time>2017-07-31T09:59:12Z</time>
      </trkpt>
      <trkpt lat="42.45017" lon="0.03332">
        <ele>876.9</ele>
        <time>2017-07-31T09:59:14Z</time>
      </trkpt>
      <trkpt lat="42.45016" lon="0.03328">
        <ele>877.1</ele>
        <time>2017-07-31T09:59:16Z</time>
      </trkpt>
      <trkpt lat="42.45015" lon="0.03324">
        <ele>877.5</ele>
        <time>2017-07-31T09:59:18Z</time>
      </trkpt>
      <trkpt lat="42.45014" lon="0.0332">
        <ele>878</ele>
        <time>2017-07-31T09:59:20Z</time>
      </trkpt>
      <trkpt lat="42.45014" lon="0.03316">
        <ele>878.5</ele>
        <time>2017-07-31T09:59:22Z</time>
      </trkpt>
      <trkpt lat="42.45013" lon="0.03312">
        <ele>878.8</ele>
        <time>2017-07-31T09:59:24Z</time>
      </trkpt>
      <trkpt lat="42.45013" lon="0.03308">
        <ele>879.2</ele>
        <time>2017-07-31T09:59:26Z</time>
      </trkpt>
      <trkpt lat="42.45013" lon="0.03304">
        <ele>879.6</ele>
        <time>2017-07-31T09:59:28Z</time>
      </trkpt>
      <trkpt lat="42.45013" lon="0.033">
        <ele>880.2</ele>
        <time>2017-07-31T09:59:30Z</time>
      </trkpt>
      <trkpt lat="42.45013" lon="0.03296">
        <ele>880.7</ele>
        <time>2017-07-31T09:59:32Z</time>
      </trkpt>
      <trkpt lat="42.45013" lon="0.03291">
        <ele>880.9</ele>
        <time>2017-07-31T09:59:34Z</time>
      </trkpt>
      <trkpt lat="42.45014" lon="0.03287">
        <ele>881.1</ele>
        <time>2017-07-31T09:59:36Z</time>
      </trkpt>
      <trkpt lat="42.45015" lon="0.03284">
        <ele>881.4</ele>
        <time>2017-07-31T09:59:38Z</time>
      </trkpt>
      <trkpt lat="42.45017" lon="0.0328">
        <ele>881.7</ele>
        <time>2017-07-31T09:59:40Z</time>
      </trkpt>
      <trkpt lat="42.4502" lon="0.03278">
        <ele>882.3</ele>
        <time>2017-07-31T09:59:42Z</time>
      </trkpt>
      <trkpt lat="42.45024" lon="0.03276">
        <ele>882.6</ele>
        <time>2017-07-31T09:59:44Z</time>
      </trkpt>
      <trkpt lat="42.45027" lon="0.03275">
        <ele>882.8</ele>
        <time>2017-07-31T09:59:46Z</time>
      </trkpt>
      <trkpt lat="42.45031" lon="0.03275">
        <ele>883</ele>
        <time>2017-07-31T09:59:48Z</time>
      </trkpt>
      <trkpt lat="42.45035" lon="0.03275">
        <ele>883.2</ele>
        <time>2017-07-31T09:59:50Z</time>
      </trkpt>
      <trkpt lat="42.45038" lon="0.03276">
        <ele>883.4</ele>
        <time>2017-07-31T09:59:52Z</time>
      </trkpt>
      <trkpt lat="42.45041" lon="0.03277">
        <ele>883.7</ele>
        <time>2017-07-31T09:59:54Z</time>
      </trkpt>
      <trkpt lat="42.45045" lon="0.03279">
        <ele>884.2</ele>
        <time>2017-07-31T09:59:56Z</time>
      </trkpt>
      <trkpt lat="42.45048" lon="0.03281">
        <ele>884.7</ele>
        <time>2017-07-31T09:59:58Z</time>
      </trkpt>
      <trkpt lat="42.45051" lon="0.03283">
        <ele>884.9</ele>
        <time>2017-07-31T10:00:00Z</time>
      </trkpt>
      <trkpt lat="42.45054" lon="0.03285">
        <ele>885.3</ele>
        <time>2017-07-31T10:00:02Z</time>
      </trkpt>
      <trkpt lat="42.45057" lon="0.03286">
        <ele>885.6</ele>
        <time>2017-07-31T10:00:04Z</time>
      </trkpt>
      <trkpt lat="42.45061" lon="0.03285">
        <ele>886</ele>
        <time>2017-07-31T10:00:06Z</time>
      </trkpt>
      <trkpt lat="42.45064" lon="0.03284">
        <ele>886.6</ele>
        <time>2017-07-31T10:00:08Z</time>
      </trkpt>
      <trkpt lat="42.45067" lon="0.03281">
        <ele>887</ele>
        <time>2017-07-31T10:00:10Z</time>
      </trkpt>
      <trkpt lat="42.45069" lon="0.03278">
        <ele>887.3</ele>
        <time>2017-07-31T10:00:12Z</time>
      </trkpt>
      <trkpt lat="42.45071" lon="0.03273">
        <ele>887.5</ele>
        <time>2017-07-31T10:00:14Z</time>
      </trkpt>
      <trkpt lat="42.45071" lon="0.03269">
        <ele>887.8</ele>
        <time>2017-07-31T10:00:16Z</time>
      </trkpt>
      <trkpt lat="42.45072" lon="0.03264">
        <ele>888.1</ele>
        <time>2017-07-31T10:00:18Z</time>
      </trkpt>
      <trkpt lat="42.45072" lon="0.03259">
        <ele>888.7</ele>
        <time>2017-07-31T10:00:20Z</time>
      </trkpt>
      <trkpt lat="42.45072" lon="0.03255">
        <ele>889.2</ele>
        <time>2017-07-31T10:00:22Z</time>
      </trkpt>
      <trkpt lat="42.45072" lon="0.03251">
        <ele>889.6</ele>
        <time>2017-07-31T10:00:24Z</time>
      </trkpt>
      <trkpt lat="42.45071" lon="0.03247">
        <ele>889.8</ele>
        <time>2017-07-31T10:00:26Z</time>
      </trkpt>
      <trkpt lat="42.4507" lon="0.03243">
        <ele>890.1</ele>
        <time>2017-07-31T10:00:28Z</time>
      </trkpt>
      <trkpt lat="42.4507" lon="0.03239">
        <ele>890.6</ele>
        <time>2017-07-31T10:00:30Z</time>
      </trkpt>
      <trkpt lat="42.4507" lon="0.03235">
        <ele>891.1</ele>
        <time>2017-07-31T10:00:32Z</time>
      </trkpt>
      <trkpt lat="42.45069" lon="0.0323">
        <ele>891.3</ele>
        <time>2017-07-31T10:00:34Z</time>
      </trkpt>
      <trkpt lat="42.45069" lon="0.03226">
        <ele>891.5</ele>
        <time>2017-07-31T10:00:36Z</time>
      </trkpt>
      <trkpt lat="42.45069" lon="0.03222">
        <ele>891.8</ele>
        <time>2017-07-31T10:00:38Z</time>
      </trkpt>
      <trkpt lat="42.4507" lon="0.03218">
        <ele>892.2</ele>
        <time>2017-07-31T10:00:40Z</time>
      </trkpt>
      <trkpt lat="42.45071" lon="0.03213">
        <ele>892.8</ele>
        <time>2017-07-31T10:00:42Z</time>
      </trkpt>
      <trkpt lat="42.45072" lon="0.03209">
        <ele>893.2</ele>
        <time>2017-07-31T10:00:44Z</time>
      </trkpt>
      <trkpt lat="42.45073" lon="0.03205">
        <ele>893.5</ele>
        <time>2017-07-31T10:00:46Z</time>
      </trkpt>
      <trkpt lat="42.45074" lon="0.03201">
        <ele>893.7</ele>
        <time>2017-07-31T10:00:48Z</time>
      </trkpt>
      <trkpt lat="42.45076" lon="0.03198">
        <ele>894</ele>
        <time>2017-07-31T10:00:50Z</time>
      </trkpt>
      <trkpt lat="42.45077" lon="0.03194">
        <ele>894.4</ele>
        <time>2017-07-31T10:00:52Z</time>
      </trkpt>
      <trkpt lat="42.45079" lon="0.0319">
        <ele>895</ele>
        <time>2017-07-31T10:00:54Z</time>
      </trkpt>
      <trkpt lat="42.45082" lon="0.03187">
        <ele>895.5</ele>
        <time>2017-07-31T10:00:56Z</time>
      </trkpt>
      <trkpt lat="42.45084" lon="0.03183">
        <ele>895.8</ele>
        <time>2017-07-31T10:00:58Z</time>
      </trkpt>
      <trkpt lat="42.45086" lon="0.0318">
        <ele>896</ele>
        <time>2017-07-31T10:01:00Z</time>
      </trkpt>
      <trkpt lat="42.45088" lon="0.03177">
        <ele>896.4</ele>
        <time>2017-07-31T10:01:02Z</time>
      </trkpt>
      <trkpt lat="42.45091" lon="0.03173">
        <ele>897.1</ele>
        <time>2017-07-31T10:01:04Z</time>
      </trkpt>
      <trkpt lat="42.45093" lon="0.0317">
        <ele>897.7</ele>
        <time>2017-07-31T10:01:06Z</time>
      </trkpt>
      <trkpt lat="42.45096" lon="0.03167">
        <ele>898.1</ele>
        <time>2017-07-31T10:01:08Z</time>
      </trkpt>
      <trkpt lat="42.45099" lon="0.03163">
        <ele>898.6</ele>
        <time>2017-07-31T10:01:10Z</time>
      </trkpt>
      <trkpt lat="42.45102" lon="0.0316">
        <ele>899.2</ele>
        <time>2017-07-31T10:01:12Z</time>
      </trkpt>
      <trkpt lat="42.45106" lon="0.03157">
        <ele>899.6</ele>
        <time>2017-07-31T10:01:14Z</time>
      </trkpt>
      <trkpt lat="42.45109" lon="0.03153">
        <ele>900</ele>
        <time>2017-07-31T10:01:16Z</time>
      </trkpt>
      <trkpt lat="42.45112" lon="0.0315">
        <ele>900.2</ele>
        <time>2017-07-31T10:01:18Z</time>
      </trkpt>
      <trkpt lat="42.45116" lon="0.03146">
        <ele>900.6</ele>
        <time>2017-07-31T10:01:20Z</time>
      </trkpt>
      <trkpt lat="42.45119" lon="0.03142">
        <ele>901.1</ele>
        <time>2017-07-31T10:01:22Z</time>
      </trkpt>
      <trkpt lat="42.45123" lon="0.03139">
        <ele>901.4</ele>
        <time>2017-07-31T10:01:24Z</time>
      </trkpt>
      <trkpt lat="42.45127" lon="0.03135">
        <ele>901.6</ele>
        <time>2017-07-31T10:01:26Z</time>
      </trkpt>
      <trkpt lat="42.4513" lon="0.03131">
        <ele>901.7</ele>
        <time>2017-07-31T10:01:28Z</time>
      </trkpt>
      <trkpt lat="42.45134" lon="0.03127">
        <ele>901.9</ele>
        <time>2017-07-31T10:01:30Z</time>
      </trkpt>
      <trkpt lat="42.45137" lon="0.03122">
        <ele>902</ele>
        <time>2017-07-31T10:01:32Z</time>
      </trkpt>
      <trkpt lat="42.45139" lon="0.03117">
        <ele>902.2</ele>
        <time>2017-07-31T10:01:34Z</time>
      </trkpt>
      <trkpt lat="42.45142" lon="0.03112">
        <ele>902.4</ele>
        <time>2017-07-31T10:01:36Z</time>
      </trkpt>
      <trkpt lat="42.45144" lon="0.03107">
        <ele>902.9</ele>
        <time>2017-07-31T10:01:38Z</time>
      </trkpt>
      <trkpt lat="42.45145" lon="0.03102">
        <ele>903.4</ele>
        <time>2017-07-31T10:01:40Z</time>
      </trkpt>
      <trkpt lat="42.45146" lon="0.03097">
        <ele>903.8</ele>
        <time>2017-07-31T10:01:42Z</time>
      </trkpt>
      <trkpt lat="42.45147" lon="0.03092">
        <ele>903.9</ele>
        <time>2017-07-31T10:01:44Z</time>
      </trkpt>
      <trkpt lat="42.45147" lon="0.03086">
        <ele>904.1</ele>
        <time>2017-07-31T10:01:46Z</time>
      </trkpt>
      <trkpt lat="42.45146" lon="0.0308">
        <ele>904.2</ele>
        <time>2017-07-31T10:01:48Z</time>
      </trkpt>
      <trkpt lat="42.45145" lon="0.03075">
        <ele>904.5</ele>
        <time>2017-07-31T10:01:50Z</time>
      </trkpt>
      <trkpt lat="42.45143" lon="0.03069">
        <ele>904.8</ele>
        <time>2017-07-31T10:01:52Z</time>
      </trkpt>
      <trkpt lat="42.45139" lon="0.03065">
        <ele>905.4</ele>
        <time>2017-07-31T10:01:54Z</time>
      </trkpt>
      <trkpt lat="42.45134" lon="0.03063">
        <ele>905.9</ele>
        <time>2017-07-31T10:01:56Z</time>
      </trkpt>
      <trkpt lat="42.45129" lon="0.03063">
        <ele>906.3</ele>
        <time>2017-07-31T10:01:58Z</time>
      </trkpt>
      <trkpt lat="42.45125" lon="0.03063">
        <ele>906.7</ele>
        <time>2017-07-31T10:02:00Z</time>
      </trkpt>
      <trkpt lat="42.4512" lon="0.03063">
        <ele>907.4</ele>
        <time>2017-07-31T10:02:02Z</time>
      </trkpt>
      <trkpt lat="42.45116" lon="0.03063">
        <ele>907.9</ele>
        <time>2017-07-31T10:02:04Z</time>
      </trkpt>
      <trkpt lat="42.45111" lon="0.03062">
        <ele>908.2</ele>
        <time>2017-07-31T10:02:06Z</time>
      </trkpt>
      <trkpt lat="42.45106" lon="0.03061">
        <ele>908.5</ele>
        <time>2017-07-31T10:02:08Z</time>
      </trkpt>
      <trkpt lat="42.45102" lon="0.0306">
        <ele>908.9</ele>
        <time>2017-07-31T10:02:10Z</time>
      </trkpt>
      <trkpt lat="42.45098" lon="0.0306">
        <ele>909.4</ele>
        <time>2017-07-31T10:02:12Z</time>
      </trkpt>
      <trkpt lat="42.45094" lon="0.03058">
        <ele>909.8</ele>
        <time>2017-07-31T10:02:14Z</time>
      </trkpt>
      <trkpt lat="42.4509" lon="0.03057">
        <ele>910</ele>
        <time>2017-07-31T10:02:16Z</time>
      </trkpt>
      <trkpt lat="42.45085" lon="0.03056">
        <ele>910.2</ele>
        <time>2017-07-31T10:02:18Z</time>
      </trkpt>
      <trkpt lat="42.45081" lon="0.03055">
        <ele>910.4</ele>
        <time>2017-07-31T10:02:20Z</time>
      </trkpt>
      <trkpt lat="42.45077" lon="0.03054">
        <ele>910.5</ele>
        <time>2017-07-31T10:02:22Z</time>
      </trkpt>
      <trkpt lat="42.45073" lon="0.03053">
        <ele>910.7</ele>
        <time>2017-07-31T10:02:24Z</time>
      </trkpt>
      <trkpt lat="42.45068" lon="0.03052">
        <ele>911.2</ele>
        <time>2017-07-31T10:02:26Z</time>
      </trkpt>
      <trkpt lat="42.45063" lon="0.0305">
        <ele>911.8</ele>
        <time>2017-07-31T10:02:28Z</time>
      </trkpt>
      <trkpt lat="42.45058" lon="0.03049">
        <ele>912</ele>
        <time>2017-07-31T10:02:30Z</time>
      </trkpt>
      <trkpt lat="42.45053" lon="0.03047">
        <ele>912.2</ele>
        <time>2017-07-31T10:02:32Z</time>
      </trkpt>
      <trkpt lat="42.45048" lon="0.03046">
        <ele>912.3</ele>
        <time>2017-07-31T10:02:34Z</time>
      </trkpt>
      <trkpt lat="42.45043" lon="0.03044">
        <ele>912.3</ele>
        <time>2017-07-31T10:02:36Z</time>
      </trkpt>
      <trkpt lat="42.45038" lon="0.03043">
        <ele>912.4</ele>
        <time>2017-07-31T10:02:38Z</time>
      </trkpt>
      <trkpt lat="42.45033" lon="0.03043">
        <ele>912.5</ele>
        <time>2017-07-31T10:02:40Z</time>
      </trkpt>
      <trkpt lat="42.4503" lon="0.03043">
        <ele>912.5</ele>
        <time>2017-07-31T10:02:41Z</time>
      </trkpt>
      <trkpt lat="42.45027" lon="0.03043">
        <ele>912.6</ele>
        <time>2017-07-31T10:02:42Z</time>
      </trkpt>
      <trkpt lat="42.45024" lon="0.03043">
        <ele>912.6</ele>
        <time>2017-07-31T10:02:43Z</time>
      </trkpt>
      <trkpt lat="42.45021" lon="0.03043">
        <ele>912.7</ele>
        <time>2017-07-31T10:02:44Z</time>
      </trkpt>
      <trkpt lat="42.45018" lon="0.03043">
        <ele>912.7</ele>
        <time>2017-07-31T10:02:45Z</time>
      </trkpt>
      <trkpt lat="42.45015" lon="0.03043">
        <ele>912.8</ele>
        <time>2017-07-31T10:02:46Z</time>
      </trkpt>
      <trkpt lat="42.45011" lon="0.03043">
        <ele>912.8</ele>
        <time>2017-07-31T10:02:47Z</time>
      </trkpt>
      <trkpt lat="42.45008" lon="0.03043">
        <ele>912.9</ele>
        <time>2017-07-31T10:02:48Z</time>
      </trkpt>
      <trkpt lat="42.45005" lon="0.03043">
        <ele>913</ele>
        <time>2017-07-31T10:02:49Z</time>
      </trkpt>
      <trkpt lat="42.45002" lon="0.03043">
        <ele>913.1</ele>
        <time>2017-07-31T10:02:50Z</time>
      </trkpt>
      <trkpt lat="42.44999" lon="0.03043">
        <ele>913.3</ele>
        <time>2017-07-31T10:02:51Z</time>
      </trkpt>
      <trkpt lat="42.44995" lon="0.03043">
        <ele>913.5</ele>
        <time>2017-07-31T10:02:52Z</time>
      </trkpt>
      <trkpt lat="42.44992" lon="0.03043">
        <ele>913.7</ele>
        <time>2017-07-31T10:02:53Z</time>
      </trkpt>
      <trkpt lat="42.44989" lon="0.03044">
        <ele>913.8</ele>
        <time>2017-07-31T10:02:54Z</time>
      </trkpt>
      <trkpt lat="42.44986" lon="0.03044">
        <ele>913.9</ele>
        <time>2017-07-31T10:02:55Z</time>
      </trkpt>
      <trkpt lat="42.44983" lon="0.03045">
        <ele>914</ele>
        <time>2017-07-31T10:02:56Z</time>
      </trkpt>
      <trkpt lat="42.4498" lon="0.03045">
        <ele>914</ele>
        <time>2017-07-31T10:02:57Z</time>
      </trkpt>
      <trkpt lat="42.44977" lon="0.03044">
        <ele>914.1</ele>
        <time>2017-07-31T10:02:58Z</time>
      </trkpt>
      <trkpt lat="42.44974" lon="0.03044">
        <ele>914.1</ele>
        <time>2017-07-31T10:02:59Z</time>
      </trkpt>
      <trkpt lat="42.44971" lon="0.03044">
        <ele>914.2</ele>
        <time>2017-07-31T10:03:00Z</time>
      </trkpt>
      <trkpt lat="42.44968" lon="0.03044">
        <ele>914.2</ele>
        <time>2017-07-31T10:03:01Z</time>
      </trkpt>
      <trkpt lat="42.44965" lon="0.03044">
        <ele>914.3</ele>
        <time>2017-07-31T10:03:02Z</time>
      </trkpt>
      <trkpt lat="42.4496" lon="0.03044">
        <ele>914.4</ele>
        <time>2017-07-31T10:03:04Z</time>
      </trkpt>
      <trkpt lat="42.44955" lon="0.03044">
        <ele>914.5</ele>
        <time>2017-07-31T10:03:06Z</time>
      </trkpt>
      <trkpt lat="42.4495" lon="0.03044">
        <ele>914.6</ele>
        <time>2017-07-31T10:03:08Z</time>
      </trkpt>
      <trkpt lat="42.44946" lon="0.03043">
        <ele>914.8</ele>
        <time>2017-07-31T10:03:10Z</time>
      </trkpt>
      <trkpt lat="42.44942" lon="0.03042">
        <ele>915.3</ele>
        <time>2017-07-31T10:03:12Z</time>
      </trkpt>
      <trkpt lat="42.44937" lon="0.0304">
        <ele>915.8</ele>
        <time>2017-07-31T10:03:14Z</time>
      </trkpt>
      <trkpt lat="42.44932" lon="0.03038">
        <ele>916.2</ele>
        <time>2017-07-31T10:03:16Z</time>
      </trkpt>
      <trkpt lat="42.44927" lon="0.03036">
        <ele>916.5</ele>
        <time>2017-07-31T10:03:18Z</time>
      </trkpt>
      <trkpt lat="42.44923" lon="0.03034">
        <ele>916.7</ele>
        <time>2017-07-31T10:03:20Z</time>
      </trkpt>
      <trkpt lat="42.44918" lon="0.03032">
        <ele>917.3</ele>
        <time>2017-07-31T10:03:22Z</time>
      </trkpt>
      <trkpt lat="42.44914" lon="0.0303">
        <ele>918</ele>
        <time>2017-07-31T10:03:24Z</time>
      </trkpt>
      <trkpt lat="42.44909" lon="0.03027">
        <ele>918.3</ele>
        <time>2017-07-31T10:03:26Z</time>
      </trkpt>
      <trkpt lat="42.44905" lon="0.03023">
        <ele>918.5</ele>
        <time>2017-07-31T10:03:28Z</time>
      </trkpt>
      <trkpt lat="42.44901" lon="0.03019">
        <ele>918.7</ele>
        <time>2017-07-31T10:03:30Z</time>
      </trkpt>
      <trkpt lat="42.44897" lon="0.03014">
        <ele>919</ele>
        <time>2017-07-31T10:03:32Z</time>
      </trkpt>
      <trkpt lat="42.44894" lon="0.03009">
        <ele>919.2</ele>
        <time>2017-07-31T10:03:34Z</time>
      </trkpt>
      <trkpt lat="42.44891" lon="0.03003">
        <ele>919.8</ele>
        <time>2017-07-31T10:03:36Z</time>
      </trkpt>
      <trkpt lat="42.44888" lon="0.02997">
        <ele>920.2</ele>
        <time>2017-07-31T10:03:38Z</time>
      </trkpt>
      <trkpt lat="42.44886" lon="0.02991">
        <ele>920.5</ele>
        <time>2017-07-31T10:03:40Z</time>
      </trkpt>
      <trkpt lat="42.44884" lon="0.02986">
        <ele>920.7</ele>
        <time>2017-07-31T10:03:42Z</time>
      </trkpt>
      <trkpt lat="42.44882" lon="0.0298">
        <ele>920.8</ele>
        <time>2017-07-31T10:03:44Z</time>
      </trkpt>
      <trkpt lat="42.4488" lon="0.02974">
        <ele>921</ele>
        <time>2017-07-31T10:03:46Z</time>
      </trkpt>
      <trkpt lat="42.44878" lon="0.0297">
        <ele>921.2</ele>
        <time>2017-07-31T10:03:48Z</time>
      </trkpt>
      <trkpt lat="42.44875" lon="0.02965">
        <ele>921.4</ele>
        <time>2017-07-31T10:03:50Z</time>
      </trkpt>
      <trkpt lat="42.44873" lon="0.02961">
        <ele>921.8</ele>
        <time>2017-07-31T10:03:52Z</time>
      </trkpt>
      <trkpt lat="42.4487" lon="0.02957">
        <ele>922.3</ele>
        <time>2017-07-31T10:03:54Z</time>
      </trkpt>
      <trkpt lat="42.44867" lon="0.02953">
        <ele>922.6</ele>
        <time>2017-07-31T10:03:56Z</time>
      </trkpt>
      <trkpt lat="42.44865" lon="0.02949">
        <ele>922.9</ele>
        <time>2017-07-31T10:03:58Z</time>
      </trkpt>
      <trkpt lat="42.44862" lon="0.02946">
        <ele>923.1</ele>
        <time>2017-07-31T10:04:00Z</time>
      </trkpt>
      <trkpt lat="42.44859" lon="0.02943">
        <ele>923.6</ele>
        <time>2017-07-31T10:04:02Z</time>
      </trkpt>
      <trkpt lat="42.44856" lon="0.0294">
        <ele>924.3</ele>
        <time>2017-07-31T10:04:04Z</time>
      </trkpt>
      <trkpt lat="42.44853" lon="0.02937">
        <ele>924.6</ele>
        <time>2017-07-31T10:04:06Z</time>
      </trkpt>
      <trkpt lat="42.44849" lon="0.02935">
        <ele>924.8</ele>
        <time>2017-07-31T10:04:08Z</time>
      </trkpt>
      <trkpt lat="42.44846" lon="0.02933">
        <ele>925.1</ele>
        <time>2017-07-31T10:04:10Z</time>
      </trkpt>
      <trkpt lat="42.44842" lon="0.02932">
        <ele>925.6</ele>
        <time>2017-07-31T10:04:12Z</time>
      </trkpt>
      <trkpt lat="42.44839" lon="0.0293">
        <ele>926.2</ele>
        <time>2017-07-31T10:04:14Z</time>
      </trkpt>
      <trkpt lat="42.44835" lon="0.02928">
        <ele>926.5</ele>
        <time>2017-07-31T10:04:16Z</time>
      </trkpt>
      <trkpt lat="42.44832" lon="0.02926">
        <ele>926.7</ele>
        <time>2017-07-31T10:04:18Z</time>
      </trkpt>
      <trkpt lat="42.44828" lon="0.02924">
        <ele>926.9</ele>
        <time>2017-07-31T10:04:20Z</time>
      </trkpt>
      <trkpt lat="42.44825" lon="0.02921">
        <ele>927.1</ele>
        <time>2017-07-31T10:04:22Z</time>
      </trkpt>
      <trkpt lat="42.44822" lon="0.02918">
        <ele>927.4</ele>
        <time>2017-07-31T10:04:24Z</time>
      </trkpt>
      <trkpt lat="42.4482" lon="0.02915">
        <ele>927.8</ele>
        <time>2017-07-31T10:04:26Z</time>
      </trkpt>
      <trkpt lat="42.44817" lon="0.02911">
        <ele>928.3</ele>
        <time>2017-07-31T10:04:28Z</time>
      </trkpt>
      <trkpt lat="42.44815" lon="0.02906">
        <ele>928.5</ele>
        <time>2017-07-31T10:04:30Z</time>
      </trkpt>
      <trkpt lat="42.44813" lon="0.02901">
        <ele>928.7</ele>
        <time>2017-07-31T10:04:32Z</time>
      </trkpt>
      <trkpt lat="42.44811" lon="0.02896">
        <ele>929</ele>
        <time>2017-07-31T10:04:34Z</time>
      </trkpt>
      <trkpt lat="42.44809" lon="0.02891">
        <ele>929.5</ele>
        <time>2017-07-31T10:04:36Z</time>
      </trkpt>
      <trkpt lat="42.44807" lon="0.02885">
        <ele>930.1</ele>
        <time>2017-07-31T10:04:38Z</time>
      </trkpt>
      <trkpt lat="42.44806" lon="0.02879">
        <ele>930.4</ele>
        <time>2017-07-31T10:04:40Z</time>
      </trkpt>
      <trkpt lat="42.44805" lon="0.02873">
        <ele>930.6</ele>
        <time>2017-07-31T10:04:42Z</time>
      </trkpt>
      <trkpt lat="42.44804" lon="0.02866">
        <ele>930.8</ele>
        <time>2017-07-31T10:04:44Z</time>
      </trkpt>
      <trkpt lat="42.44803" lon="0.02859">
        <ele>931</ele>
        <time>2017-07-31T10:04:46Z</time>
      </trkpt>
      <trkpt lat="42.44802" lon="0.02853">
        <ele>931.2</ele>
        <time>2017-07-31T10:04:48Z</time>
      </trkpt>
      <trkpt lat="42.44801" lon="0.02847">
        <ele>931.5</ele>
        <time>2017-07-31T10:04:50Z</time>
      </trkpt>
      <trkpt lat="42.448" lon="0.0284">
        <ele>932.1</ele>
        <time>2017-07-31T10:04:52Z</time>
      </trkpt>
      <trkpt lat="42.44798" lon="0.02834">
        <ele>932.4</ele>
        <time>2017-07-31T10:04:54Z</time>
      </trkpt>
      <trkpt lat="42.44797" lon="0.02828">
        <ele>932.6</ele>
        <time>2017-07-31T10:04:56Z</time>
      </trkpt>
      <trkpt lat="42.44795" lon="0.02822">
        <ele>932.7</ele>
        <time>2017-07-31T10:04:58Z</time>
      </trkpt>
      <trkpt lat="42.44793" lon="0.02816">
        <ele>932.9</ele>
        <time>2017-07-31T10:05:00Z</time>
      </trkpt>
      <trkpt lat="42.44791" lon="0.0281">
        <ele>933.1</ele>
        <time>2017-07-31T10:05:02Z</time>
      </trkpt>
      <trkpt lat="42.44789" lon="0.02805">
        <ele>933.3</ele>
        <time>2017-07-31T10:05:04Z</time>
      </trkpt>
      <trkpt lat="42.44786" lon="0.028">
        <ele>933.6</ele>
        <time>2017-07-31T10:05:06Z</time>
      </trkpt>
      <trkpt lat="42.44784" lon="0.02795">
        <ele>934</ele>
        <time>2017-07-31T10:05:08Z</time>
      </trkpt>
      <trkpt lat="42.44782" lon="0.0279">
        <ele>934.5</ele>
        <time>2017-07-31T10:05:10Z</time>
      </trkpt>
      <trkpt lat="42.4478" lon="0.02786">
        <ele>934.7</ele>
        <time>2017-07-31T10:05:12Z</time>
      </trkpt>
      <trkpt lat="42.44777" lon="0.02782">
        <ele>935.1</ele>
        <time>2017-07-31T10:05:14Z</time>
      </trkpt>
      <trkpt lat="42.44775" lon="0.02777">
        <ele>935.4</ele>
        <time>2017-07-31T10:05:16Z</time>
      </trkpt>
      <trkpt lat="42.44772" lon="0.02772">
        <ele>935.7</ele>
        <time>2017-07-31T10:05:18Z</time>
      </trkpt>
      <trkpt lat="42.4477" lon="0.02768">
        <ele>936.3</ele>
        <time>2017-07-31T10:05:20Z</time>
      </trkpt>
      <trkpt lat="42.44768" lon="0.02764">
        <ele>936.8</ele>
        <time>2017-07-31T10:05:22Z</time>
      </trkpt>
      <trkpt lat="42.44767" lon="0.0276">
        <ele>937.2</ele>
        <time>2017-07-31T10:05:24Z</time>
      </trkpt>
      <trkpt lat="42.44765" lon="0.02755">
        <ele>937.5</ele>
        <time>2017-07-31T10:05:26Z</time>
      </trkpt>
      <trkpt lat="42.44764" lon="0.02751">
        <ele>937.8</ele>
        <time>2017-07-31T10:05:28Z</time>
      </trkpt>
      <trkpt lat="42.44762" lon="0.02746">
        <ele>938.3</ele>
        <time>2017-07-31T10:05:30Z</time>
      </trkpt>
      <trkpt lat="42.44761" lon="0.02741">
        <ele>938.7</ele>
        <time>2017-07-31T10:05:32Z</time>
      </trkpt>
      <trkpt lat="42.4476" lon="0.02736">
        <ele>938.9</ele>
        <time>2017-07-31T10:05:34Z</time>
      </trkpt>
      <trkpt lat="42.44759" lon="0.02731">
        <ele>939.1</ele>
        <time>2017-07-31T10:05:36Z</time>
      </trkpt>
      <trkpt lat="42.44759" lon="0.02726">
        <ele>939.3</ele>
        <time>2017-07-31T10:05:38Z</time>
      </trkpt>
      <trkpt lat="42.44759" lon="0.02721">
        <ele>939.5</ele>
        <time>2017-07-31T10:05:40Z</time>
      </trkpt>
      <trkpt lat="42.44759" lon="0.02716">
        <ele>939.8</ele>
        <time>2017-07-31T10:05:42Z</time>
      </trkpt>
      <trkpt lat="42.4476" lon="0.02711">
        <ele>940.3</ele>
        <time>2017-07-31T10:05:44Z</time>
      </trkpt>
      <trkpt lat="42.44762" lon="0.02706">
        <ele>940.8</ele>
        <time>2017-07-31T10:05:46Z</time>
      </trkpt>
      <trkpt lat="42.44764" lon="0.027">
        <ele>941.2</ele>
        <time>2017-07-31T10:05:48Z</time>
      </trkpt>
      <trkpt lat="42.44766" lon="0.02695">
        <ele>941.4</ele>
        <time>2017-07-31T10:05:50Z</time>
      </trkpt>
      <trkpt lat="42.44768" lon="0.0269">
        <ele>941.7</ele>
        <time>2017-07-31T10:05:52Z</time>
      </trkpt>
      <trkpt lat="42.44771" lon="0.02685">
        <ele>942.3</ele>
        <time>2017-07-31T10:05:54Z</time>
      </trkpt>
      <trkpt lat="42.44774" lon="0.0268">
        <ele>942.9</ele>
        <time>2017-07-31T10:05:56Z</time>
      </trkpt>
      <trkpt lat="42.44778" lon="0.02675">
        <ele>943.2</ele>
        <time>2017-07-31T10:05:58Z</time>
      </trkpt>
      <trkpt lat="42.44781" lon="0.0267">
        <ele>943.5</ele>
        <time>2017-07-31T10:06:00Z</time>
      </trkpt>
      <trkpt lat="42.44785" lon="0.02664">
        <ele>943.7</ele>
        <time>2017-07-31T10:06:02Z</time>
      </trkpt>
      <trkpt lat="42.44789" lon="0.0266">
        <ele>944.1</ele>
        <time>2017-07-31T10:06:04Z</time>
      </trkpt>
      <trkpt lat="42.44791" lon="0.02658">
        <ele>944.5</ele>
        <time>2017-07-31T10:06:05Z</time>
      </trkpt>
      <trkpt lat="42.44794" lon="0.02656">
        <ele>944.7</ele>
        <time>2017-07-31T10:06:06Z</time>
      </trkpt>
      <trkpt lat="42.44796" lon="0.02654">
        <ele>944.8</ele>
        <time>2017-07-31T10:06:07Z</time>
      </trkpt>
      <trkpt lat="42.44798" lon="0.02652">
        <ele>944.9</ele>
        <time>2017-07-31T10:06:08Z</time>
      </trkpt>
      <trkpt lat="42.448" lon="0.02649">
        <ele>945</ele>
        <time>2017-07-31T10:06:09Z</time>
      </trkpt>
      <trkpt lat="42.44803" lon="0.02647">
        <ele>945</ele>
        <time>2017-07-31T10:06:10Z</time>
      </trkpt>
      <trkpt lat="42.44805" lon="0.02644">
        <ele>945.1</ele>
        <time>2017-07-31T10:06:11Z</time>
      </trkpt>
      <trkpt lat="42.44808" lon="0.02641">
        <ele>945.1</ele>
        <time>2017-07-31T10:06:12Z</time>
      </trkpt>
      <trkpt lat="42.4481" lon="0.02638">
        <ele>945.2</ele>
        <time>2017-07-31T10:06:13Z</time>
      </trkpt>
      <trkpt lat="42.44812" lon="0.02635">
        <ele>945.2</ele>
        <time>2017-07-31T10:06:14Z</time>
      </trkpt>
      <trkpt lat="42.44814" lon="0.02631">
        <ele>945.2</ele>
        <time>2017-07-31T10:06:15Z</time>
      </trkpt>
      <trkpt lat="42.44816" lon="0.02627">
        <ele>945.3</ele>
        <time>2017-07-31T10:06:16Z</time>
      </trkpt>
      <trkpt lat="42.44818" lon="0.02623">
        <ele>945.3</ele>
        <time>2017-07-31T10:06:17Z</time>
      </trkpt>
      <trkpt lat="42.44819" lon="0.02619">
        <ele>945.3</ele>
        <time>2017-07-31T10:06:18Z</time>
      </trkpt>
      <trkpt lat="42.4482" lon="0.02615">
        <ele>945.4</ele>
        <time>2017-07-31T10:06:19Z</time>
      </trkpt>
      <trkpt lat="42.44821" lon="0.0261">
        <ele>945.4</ele>
        <time>2017-07-31T10:06:20Z</time>
      </trkpt>
      <trkpt lat="42.44821" lon="0.02605">
        <ele>945.4</ele>
        <time>2017-07-31T10:06:21Z</time>
      </trkpt>
      <trkpt lat="42.44822" lon="0.02601">
        <ele>945.5</ele>
        <time>2017-07-31T10:06:22Z</time>
      </trkpt>
      <trkpt lat="42.44822" lon="0.02596">
        <ele>945.6</ele>
        <time>2017-07-31T10:06:23Z</time>
      </trkpt>
      <trkpt lat="42.44822" lon="0.02592">
        <ele>945.6</ele>
        <time>2017-07-31T10:06:24Z</time>
      </trkpt>
      <trkpt lat="42.44822" lon="0.02588">
        <ele>945.7</ele>
        <time>2017-07-31T10:06:25Z</time>
      </trkpt>
      <trkpt lat="42.44822" lon="0.02583">
        <ele>945.7</ele>
        <time>2017-07-31T10:06:26Z</time>
      </trkpt>
      <trkpt lat="42.44822" lon="0.02579">
        <ele>945.8</ele>
        <time>2017-07-31T10:06:27Z</time>
      </trkpt>
      <trkpt lat="42.44822" lon="0.02575">
        <ele>945.9</ele>
        <time>2017-07-31T10:06:28Z</time>
      </trkpt>
      <trkpt lat="42.44822" lon="0.0257">
        <ele>946</ele>
        <time>2017-07-31T10:06:29Z</time>
      </trkpt>
      <trkpt lat="42.44822" lon="0.02566">
        <ele>946</ele>
        <time>2017-07-31T10:06:30Z</time>
      </trkpt>
      <trkpt lat="42.44822" lon="0.02562">
        <ele>946.2</ele>
        <time>2017-07-31T10:06:31Z</time>
      </trkpt>
      <trkpt lat="42.44823" lon="0.02557">
        <ele>946.4</ele>
        <time>2017-07-31T10:06:32Z</time>
      </trkpt>
      <trkpt lat="42.44823" lon="0.02553">
        <ele>946.7</ele>
        <time>2017-07-31T10:06:33Z</time>
      </trkpt>
      <trkpt lat="42.44823" lon="0.02549">
        <ele>946.8</ele>
        <time>2017-07-31T10:06:34Z</time>
      </trkpt>
      <trkpt lat="42.44823" lon="0.02544">
        <ele>947</ele>
        <time>2017-07-31T10:06:35Z</time>
      </trkpt>
      <trkpt lat="42.44822" lon="0.0254">
        <ele>947.1</ele>
        <time>2017-07-31T10:06:36Z</time>
      </trkpt>
      <trkpt lat="42.4482" lon="0.02537">
        <ele>947.1</ele>
        <time>2017-07-31T10:06:37Z</time>
      </trkpt>
      <trkpt lat="42.44816" lon="0.02534">
        <ele>947.2</ele>
        <time>2017-07-31T10:06:39Z</time>
      </trkpt>
      <trkpt lat="42.44811" lon="0.02533">
        <ele>947.2</ele>
        <time>2017-07-31T10:06:41Z</time>
      </trkpt>
      <trkpt lat="42.44808" lon="0.02533">
        <ele>947.3</ele>
        <time>2017-07-31T10:06:42Z</time>
      </trkpt>
      <trkpt lat="42.44805" lon="0.02532">
        <ele>947.3</ele>
        <time>2017-07-31T10:06:43Z</time>
      </trkpt>
      <trkpt lat="42.44802" lon="0.02531">
        <ele>947.3</ele>
        <time>2017-07-31T10:06:44Z</time>
      </trkpt>
      <trkpt lat="42.44799" lon="0.0253">
        <ele>947.3</ele>
        <time>2017-07-31T10:06:45Z</time>
      </trkpt>
      <trkpt lat="42.44796" lon="0.02529">
        <ele>947.3</ele>
        <time>2017-07-31T10:06:46Z</time>
      </trkpt>
      <trkpt lat="42.44793" lon="0.02528">
        <ele>947.3</ele>
        <time>2017-07-31T10:06:47Z</time>
      </trkpt>
      <trkpt lat="42.4479" lon="0.02527">
        <ele>947.3</ele>
        <time>2017-07-31T10:06:48Z</time>
      </trkpt>
      <trkpt lat="42.44787" lon="0.02526">
        <ele>947.3</ele>
        <time>2017-07-31T10:06:49Z</time>
      </trkpt>
      <trkpt lat="42.44784" lon="0.02526">
        <ele>947.3</ele>
        <time>2017-07-31T10:06:50Z</time>
      </trkpt>
      <trkpt lat="42.44781" lon="0.02525">
        <ele>947.3</ele>
        <time>2017-07-31T10:06:51Z</time>
      </trkpt>
      <trkpt lat="42.44778" lon="0.02524">
        <ele>947.4</ele>
        <time>2017-07-31T10:06:52Z</time>
      </trkpt>
      <trkpt lat="42.44775" lon="0.02523">
        <ele>947.4</ele>
        <time>2017-07-31T10:06:53Z</time>
      </trkpt>
      <trkpt lat="42.44771" lon="0.02522">
        <ele>947.4</ele>
        <time>2017-07-31T10:06:54Z</time>
      </trkpt>
      <trkpt lat="42.44768" lon="0.02521">
        <ele>947.4</ele>
        <time>2017-07-31T10:06:55Z</time>
      </trkpt>
      <trkpt lat="42.44765" lon="0.02519">
        <ele>947.4</ele>
        <time>2017-07-31T10:06:56Z</time>
      </trkpt>
      <trkpt lat="42.44762" lon="0.02517">
        <ele>947.5</ele>
        <time>2017-07-31T10:06:57Z</time>
      </trkpt>
      <trkpt lat="42.4476" lon="0.02516">
        <ele>947.5</ele>
        <time>2017-07-31T10:06:58Z</time>
      </trkpt>
      <trkpt lat="42.44757" lon="0.02513">
        <ele>947.5</ele>
        <time>2017-07-31T10:06:59Z</time>
      </trkpt>
      <trkpt lat="42.44754" lon="0.02511">
        <ele>947.5</ele>
        <time>2017-07-31T10:07:00Z</time>
      </trkpt>
      <trkpt lat="42.44752" lon="0.02508">
        <ele>947.6</ele>
        <time>2017-07-31T10:07:01Z</time>
      </trkpt>
      <trkpt lat="42.4475" lon="0.02505">
        <ele>947.7</ele>
        <time>2017-07-31T10:07:02Z</time>
      </trkpt>
      <trkpt lat="42.44749" lon="0.02501">
        <ele>947.7</ele>
        <time>2017-07-31T10:07:03Z</time>
      </trkpt>
      <trkpt lat="42.44748" lon="0.02497">
        <ele>947.8</ele>
        <time>2017-07-31T10:07:04Z</time>
      </trkpt>
      <trkpt lat="42.44747" lon="0.02493">
        <ele>947.9</ele>
        <time>2017-07-31T10:07:05Z</time>
      </trkpt>
      <trkpt lat="42.44746" lon="0.02489">
        <ele>948.1</ele>
        <time>2017-07-31T10:07:06Z</time>
      </trkpt>
      <trkpt lat="42.44745" lon="0.02485">
        <ele>948.3</ele>
        <time>2017-07-31T10:07:07Z</time>
      </trkpt>
      <trkpt lat="42.44744" lon="0.02482">
        <ele>948.6</ele>
        <time>2017-07-31T10:07:08Z</time>
      </trkpt>
      <trkpt lat="42.44743" lon="0.02478">
        <ele>948.9</ele>
        <time>2017-07-31T10:07:09Z</time>
      </trkpt>
      <trkpt lat="42.44741" lon="0.02474">
        <ele>949</ele>
        <time>2017-07-31T10:07:10Z</time>
      </trkpt>
      <trkpt lat="42.4474" lon="0.02471">
        <ele>949.1</ele>
        <time>2017-07-31T10:07:11Z</time>
      </trkpt>
      <trkpt lat="42.44738" lon="0.02468">
        <ele>949.2</ele>
        <time>2017-07-31T10:07:12Z</time>
      </trkpt>
      <trkpt lat="42.44736" lon="0.02465">
        <ele>949.3</ele>
        <time>2017-07-31T10:07:13Z</time>
      </trkpt>
      <trkpt lat="42.44734" lon="0.02462">
        <ele>949.4</ele>
        <time>2017-07-31T10:07:14Z</time>
      </trkpt>
      <trkpt lat="42.44732" lon="0.0246">
        <ele>949.4</ele>
        <time>2017-07-31T10:07:15Z</time>
      </trkpt>
      <trkpt lat="42.4473" lon="0.02458">
        <ele>949.5</ele>
        <time>2017-07-31T10:07:16Z</time>
      </trkpt>
      <trkpt lat="42.44725" lon="0.02455">
        <ele>949.7</ele>
        <time>2017-07-31T10:07:18Z</time>
      </trkpt>
      <trkpt lat="42.4472" lon="0.02454">
        <ele>949.8</ele>
        <time>2017-07-31T10:07:20Z</time>
      </trkpt>
      <trkpt lat="42.44715" lon="0.02452">
        <ele>950</ele>
        <time>2017-07-31T10:07:22Z</time>
      </trkpt>
      <trkpt lat="42.44711" lon="0.02451">
        <ele>950.2</ele>
        <time>2017-07-31T10:07:24Z</time>
      </trkpt>
      <trkpt lat="42.44706" lon="0.0245">
        <ele>950.6</ele>
        <time>2017-07-31T10:07:26Z</time>
      </trkpt>
      <trkpt lat="42.44702" lon="0.02447">
        <ele>951.1</ele>
        <time>2017-07-31T10:07:28Z</time>
      </trkpt>
      <trkpt lat="42.44697" lon="0.02444">
        <ele>951.4</ele>
        <time>2017-07-31T10:07:30Z</time>
      </trkpt>
      <trkpt lat="42.44693" lon="0.0244">
        <ele>951.6</ele>
        <time>2017-07-31T10:07:32Z</time>
      </trkpt>
      <trkpt lat="42.44691" lon="0.02435">
        <ele>951.9</ele>
        <time>2017-07-31T10:07:34Z</time>
      </trkpt>
      <trkpt lat="42.44689" lon="0.02429">
        <ele>952.2</ele>
        <time>2017-07-31T10:07:36Z</time>
      </trkpt>
      <trkpt lat="42.44688" lon="0.02423">
        <ele>952.6</ele>
        <time>2017-07-31T10:07:38Z</time>
      </trkpt>
      <trkpt lat="42.44688" lon="0.02416">
        <ele>953.2</ele>
        <time>2017-07-31T10:07:40Z</time>
      </trkpt>
      <trkpt lat="42.44688" lon="0.02409">
        <ele>953.5</ele>
        <time>2017-07-31T10:07:42Z</time>
      </trkpt>
      <trkpt lat="42.44689" lon="0.02405">
        <ele>953.6</ele>
        <time>2017-07-31T10:07:43Z</time>
      </trkpt>
      <trkpt lat="42.44689" lon="0.02401">
        <ele>953.7</ele>
        <time>2017-07-31T10:07:44Z</time>
      </trkpt>
      <trkpt lat="42.4469" lon="0.02397">
        <ele>953.8</ele>
        <time>2017-07-31T10:07:45Z</time>
      </trkpt>
      <trkpt lat="42.4469" lon="0.02393">
        <ele>954</ele>
        <time>2017-07-31T10:07:46Z</time>
      </trkpt>
      <trkpt lat="42.4469" lon="0.02389">
        <ele>954.1</ele>
        <time>2017-07-31T10:07:47Z</time>
      </trkpt>
      <trkpt lat="42.4469" lon="0.02385">
        <ele>954.3</ele>
        <time>2017-07-31T10:07:48Z</time>
      </trkpt>
      <trkpt lat="42.44691" lon="0.02381">
        <ele>954.6</ele>
        <time>2017-07-31T10:07:49Z</time>
      </trkpt>
      <trkpt lat="42.44691" lon="0.02377">
        <ele>954.9</ele>
        <time>2017-07-31T10:07:50Z</time>
      </trkpt>
      <trkpt lat="42.44691" lon="0.02373">
        <ele>955.2</ele>
        <time>2017-07-31T10:07:51Z</time>
      </trkpt>
      <trkpt lat="42.44691" lon="0.02369">
        <ele>955.3</ele>
        <time>2017-07-31T10:07:52Z</time>
      </trkpt>
      <trkpt lat="42.44692" lon="0.02365">
        <ele>955.4</ele>
        <time>2017-07-31T10:07:53Z</time>
      </trkpt>
      <trkpt lat="42.44692" lon="0.02362">
        <ele>955.5</ele>
        <time>2017-07-31T10:07:54Z</time>
      </trkpt>
      <trkpt lat="42.44693" lon="0.02357">
        <ele>955.5</ele>
        <time>2017-07-31T10:07:55Z</time>
      </trkpt>
      <trkpt lat="42.44693" lon="0.02353">
        <ele>955.6</ele>
        <time>2017-07-31T10:07:56Z</time>
      </trkpt>
      <trkpt lat="42.44693" lon="0.02349">
        <ele>955.6</ele>
        <time>2017-07-31T10:07:57Z</time>
      </trkpt>
      <trkpt lat="42.44693" lon="0.02345">
        <ele>955.7</ele>
        <time>2017-07-31T10:07:58Z</time>
      </trkpt>
      <trkpt lat="42.44692" lon="0.02341">
        <ele>955.7</ele>
        <time>2017-07-31T10:07:59Z</time>
      </trkpt>
      <trkpt lat="42.44692" lon="0.02337">
        <ele>955.7</ele>
        <time>2017-07-31T10:08:00Z</time>
      </trkpt>
      <trkpt lat="42.44692" lon="0.02333">
        <ele>955.8</ele>
        <time>2017-07-31T10:08:01Z</time>
      </trkpt>
      <trkpt lat="42.44692" lon="0.02329">
        <ele>955.8</ele>
        <time>2017-07-31T10:08:02Z</time>
      </trkpt>
      <trkpt lat="42.44692" lon="0.02325">
        <ele>955.8</ele>
        <time>2017-07-31T10:08:03Z</time>
      </trkpt>
      <trkpt lat="42.44692" lon="0.02321">
        <ele>955.8</ele>
        <time>2017-07-31T10:08:04Z</time>
      </trkpt>
      <trkpt lat="42.44691" lon="0.02317">
        <ele>955.8</ele>
        <time>2017-07-31T10:08:05Z</time>
      </trkpt>
      <trkpt lat="42.44691" lon="0.02313">
        <ele>955.9</ele>
        <time>2017-07-31T10:08:06Z</time>
      </trkpt>
      <trkpt lat="42.4469" lon="0.02308">
        <ele>955.9</ele>
        <time>2017-07-31T10:08:07Z</time>
      </trkpt>
      <trkpt lat="42.44689" lon="0.02304">
        <ele>955.9</ele>
        <time>2017-07-31T10:08:08Z</time>
      </trkpt>
      <trkpt lat="42.44687" lon="0.023">
        <ele>956</ele>
        <time>2017-07-31T10:08:09Z</time>
      </trkpt>
      <trkpt lat="42.44685" lon="0.02295">
        <ele>956</ele>
        <time>2017-07-31T10:08:10Z</time>
      </trkpt>
      <trkpt lat="42.44683" lon="0.02292">
        <ele>956</ele>
        <time>2017-07-31T10:08:11Z</time>
      </trkpt>
      <trkpt lat="42.44681" lon="0.02288">
        <ele>956.1</ele>
        <time>2017-07-31T10:08:12Z</time>
      </trkpt>
      <trkpt lat="42.44679" lon="0.02284">
        <ele>956.2</ele>
        <time>2017-07-31T10:08:13Z</time>
      </trkpt>
      <trkpt lat="42.44676" lon="0.02281">
        <ele>956.3</ele>
        <time>2017-07-31T10:08:14Z</time>
      </trkpt>
      <trkpt lat="42.44673" lon="0.02278">
        <ele>956.4</ele>
        <time>2017-07-31T10:08:15Z</time>
      </trkpt>
      <trkpt lat="42.4467" lon="0.02275">
        <ele>956.6</ele>
        <time>2017-07-31T10:08:16Z</time>
      </trkpt>
      <trkpt lat="42.44667" lon="0.02273">
        <ele>956.9</ele>
        <time>2017-07-31T10:08:17Z</time>
      </trkpt>
      <trkpt lat="42.44663" lon="0.02271">
        <ele>957.2</ele>
        <time>2017-07-31T10:08:18Z</time>
      </trkpt>
      <trkpt lat="42.4466" lon="0.0227">
        <ele>957.4</ele>
        <time>2017-07-31T10:08:19Z</time>
      </trkpt>
      <trkpt lat="42.44656" lon="0.02268">
        <ele>957.6</ele>
        <time>2017-07-31T10:08:20Z</time>
      </trkpt>
      <trkpt lat="42.44653" lon="0.02267">
        <ele>957.6</ele>
        <time>2017-07-31T10:08:21Z</time>
      </trkpt>
      <trkpt lat="42.44649" lon="0.02266">
        <ele>957.7</ele>
        <time>2017-07-31T10:08:22Z</time>
      </trkpt>
      <trkpt lat="42.44646" lon="0.02265">
        <ele>957.8</ele>
        <time>2017-07-31T10:08:23Z</time>
      </trkpt>
      <trkpt lat="42.44643" lon="0.02264">
        <ele>957.8</ele>
        <time>2017-07-31T10:08:24Z</time>
      </trkpt>
      <trkpt lat="42.4464" lon="0.02263">
        <ele>957.9</ele>
        <time>2017-07-31T10:08:25Z</time>
      </trkpt>
      <trkpt lat="42.44637" lon="0.02263">
        <ele>957.9</ele>
        <time>2017-07-31T10:08:26Z</time>
      </trkpt>
      <trkpt lat="42.44634" lon="0.02262">
        <ele>958</ele>
        <time>2017-07-31T10:08:27Z</time>
      </trkpt>
      <trkpt lat="42.44631" lon="0.02261">
        <ele>958</ele>
        <time>2017-07-31T10:08:28Z</time>
      </trkpt>
      <trkpt lat="42.44628" lon="0.0226">
        <ele>958.1</ele>
        <time>2017-07-31T10:08:29Z</time>
      </trkpt>
      <trkpt lat="42.44625" lon="0.0226">
        <ele>958.2</ele>
        <time>2017-07-31T10:08:30Z</time>
      </trkpt>
      <trkpt lat="42.44622" lon="0.02259">
        <ele>958.2</ele>
        <time>2017-07-31T10:08:31Z</time>
      </trkpt>
      <trkpt lat="42.44619" lon="0.02259">
        <ele>958.3</ele>
        <time>2017-07-31T10:08:32Z</time>
      </trkpt>
      <trkpt lat="42.44617" lon="0.02259">
        <ele>958.4</ele>
        <time>2017-07-31T10:08:33Z</time>
      </trkpt>
      <trkpt lat="42.44614" lon="0.02259">
        <ele>958.5</ele>
        <time>2017-07-31T10:08:34Z</time>
      </trkpt>
      <trkpt lat="42.44611" lon="0.02259">
        <ele>958.6</ele>
        <time>2017-07-31T10:08:35Z</time>
      </trkpt>
      <trkpt lat="42.44608" lon="0.02259">
        <ele>958.8</ele>
        <time>2017-07-31T10:08:36Z</time>
      </trkpt>
      <trkpt lat="42.44605" lon="0.02259">
        <ele>959</ele>
        <time>2017-07-31T10:08:37Z</time>
      </trkpt>
      <trkpt lat="42.44602" lon="0.0226">
        <ele>959.3</ele>
        <time>2017-07-31T10:08:38Z</time>
      </trkpt>
      <trkpt lat="42.44599" lon="0.0226">
        <ele>959.6</ele>
        <time>2017-07-31T10:08:39Z</time>
      </trkpt>
      <trkpt lat="42.44597" lon="0.02261">
        <ele>959.7</ele>
        <time>2017-07-31T10:08:40Z</time>
      </trkpt>
      <trkpt lat="42.44592" lon="0.02262">
        <ele>959.9</ele>
        <time>2017-07-31T10:08:42Z</time>
      </trkpt>
      <trkpt lat="42.44587" lon="0.02264">
        <ele>960</ele>
        <time>2017-07-31T10:08:44Z</time>
      </trkpt>
      <trkpt lat="42.44583" lon="0.02267">
        <ele>960.2</ele>
        <time>2017-07-31T10:08:46Z</time>
      </trkpt>
      <trkpt lat="42.44578" lon="0.0227">
        <ele>960.4</ele>
        <time>2017-07-31T10:08:48Z</time>
      </trkpt>
      <trkpt lat="42.44573" lon="0.02272">
        <ele>960.6</ele>
        <time>2017-07-31T10:08:50Z</time>
      </trkpt>
      <trkpt lat="42.44571" lon="0.02273">
        <ele>960.8</ele>
        <time>2017-07-31T10:08:51Z</time>
      </trkpt>
      <trkpt lat="42.44568" lon="0.02274">
        <ele>961.2</ele>
        <time>2017-07-31T10:08:52Z</time>
      </trkpt>
      <trkpt lat="42.44565" lon="0.02275">
        <ele>961.6</ele>
        <time>2017-07-31T10:08:53Z</time>
      </trkpt>
      <trkpt lat="42.44562" lon="0.02275">
        <ele>961.9</ele>
        <time>2017-07-31T10:08:54Z</time>
      </trkpt>
      <trkpt lat="42.44558" lon="0.02275">
        <ele>962.2</ele>
        <time>2017-07-31T10:08:56Z</time>
      </trkpt>
      <trkpt lat="42.44554" lon="0.02274">
        <ele>962.4</ele>
        <time>2017-07-31T10:08:58Z</time>
      </trkpt>
      <trkpt lat="42.44551" lon="0.02272">
        <ele>962.8</ele>
        <time>2017-07-31T10:09:00Z</time>
      </trkpt>
      <trkpt lat="42.44548" lon="0.0227">
        <ele>963.2</ele>
        <time>2017-07-31T10:09:02Z</time>
      </trkpt>
      <trkpt lat="42.44546" lon="0.02267">
        <ele>963.6</ele>
        <time>2017-07-31T10:09:04Z</time>
      </trkpt>
      <trkpt lat="42.44543" lon="0.02263">
        <ele>964.1</ele>
        <time>2017-07-31T10:09:06Z</time>
      </trkpt>
      <trkpt lat="42.44541" lon="0.02259">
        <ele>964.3</ele>
        <time>2017-07-31T10:09:08Z</time>
      </trkpt>
      <trkpt lat="42.44539" lon="0.02255">
        <ele>964.5</ele>
        <time>2017-07-31T10:09:10Z</time>
      </trkpt>
      <trkpt lat="42.44538" lon="0.02251">
        <ele>964.7</ele>
        <time>2017-07-31T10:09:12Z</time>
      </trkpt>
      <trkpt lat="42.44536" lon="0.02247">
        <ele>964.9</ele>
        <time>2017-07-31T10:09:14Z</time>
      </trkpt>
      <trkpt lat="42.44534" lon="0.02243">
        <ele>965.3</ele>
        <time>2017-07-31T10:09:16Z</time>
      </trkpt>
      <trkpt lat="42.44533" lon="0.02239">
        <ele>965.8</ele>
        <time>2017-07-31T10:09:18Z</time>
      </trkpt>
      <trkpt lat="42.44531" lon="0.02234">
        <ele>966.2</ele>
        <time>2017-07-31T10:09:20Z</time>
      </trkpt>
      <trkpt lat="42.4453" lon="0.0223">
        <ele>966.4</ele>
        <time>2017-07-31T10:09:22Z</time>
      </trkpt>
      <trkpt lat="42.44528" lon="0.02227">
        <ele>966.7</ele>
        <time>2017-07-31T10:09:24Z</time>
      </trkpt>
      <trkpt lat="42.44527" lon="0.02223">
        <ele>967</ele>
        <time>2017-07-31T10:09:26Z</time>
      </trkpt>
      <trkpt lat="42.44526" lon="0.0222">
        <ele>967.4</ele>
        <time>2017-07-31T10:09:28Z</time>
      </trkpt>
      <trkpt lat="42.44524" lon="0.02216">
        <ele>967.9</ele>
        <time>2017-07-31T10:09:30Z</time>
      </trkpt>
      <trkpt lat="42.44522" lon="0.02213">
        <ele>968.3</ele>
        <time>2017-07-31T10:09:32Z</time>
      </trkpt>
      <trkpt lat="42.4452" lon="0.0221">
        <ele>968.5</ele>
        <time>2017-07-31T10:09:34Z</time>
      </trkpt>
      <trkpt lat="42.44518" lon="0.02207">
        <ele>968.7</ele>
        <time>2017-07-31T10:09:36Z</time>
      </trkpt>
      <trkpt lat="42.44516" lon="0.02204">
        <ele>969</ele>
        <time>2017-07-31T10:09:38Z</time>
      </trkpt>
      <trkpt lat="42.44515" lon="0.02201">
        <ele>969.7</ele>
        <time>2017-07-31T10:09:40Z</time>
      </trkpt>
      <trkpt lat="42.44513" lon="0.02198">
        <ele>970.3</ele>
        <time>2017-07-31T10:09:42Z</time>
      </trkpt>
      <trkpt lat="42.44512" lon="0.02194">
        <ele>970.8</ele>
        <time>2017-07-31T10:09:44Z</time>
      </trkpt>
      <trkpt lat="42.4451" lon="0.02189">
        <ele>971.6</ele>
        <time>2017-07-31T10:09:47Z</time>
      </trkpt>
      <trkpt lat="42.44509" lon="0.02184">
        <ele>972.4</ele>
        <time>2017-07-31T10:09:50Z</time>
      </trkpt>
      <trkpt lat="42.4451" lon="0.02179">
        <ele>973.1</ele>
        <time>2017-07-31T10:09:53Z</time>
      </trkpt>
      <trkpt lat="42.44513" lon="0.02177">
        <ele>974</ele>
        <time>2017-07-31T10:09:56Z</time>
      </trkpt>
      <trkpt lat="42.44516" lon="0.02176">
        <ele>974.5</ele>
        <time>2017-07-31T10:09:58Z</time>
      </trkpt>
      <trkpt lat="42.44519" lon="0.02176">
        <ele>974.9</ele>
        <time>2017-07-31T10:10:00Z</time>
      </trkpt>
      <trkpt lat="42.44521" lon="0.02176">
        <ele>975.3</ele>
        <time>2017-07-31T10:10:02Z</time>
      </trkpt>
      <trkpt lat="42.44524" lon="0.02175">
        <ele>975.9</ele>
        <time>2017-07-31T10:10:04Z</time>
      </trkpt>
      <trkpt lat="42.44527" lon="0.02176">
        <ele>976.3</ele>
        <time>2017-07-31T10:10:06Z</time>
      </trkpt>
      <trkpt lat="42.4453" lon="0.02176">
        <ele>976.7</ele>
        <time>2017-07-31T10:10:08Z</time>
      </trkpt>
      <trkpt lat="42.44533" lon="0.02176">
        <ele>977</ele>
        <time>2017-07-31T10:10:10Z</time>
      </trkpt>
      <trkpt lat="42.44536" lon="0.02175">
        <ele>977.3</ele>
        <time>2017-07-31T10:10:12Z</time>
      </trkpt>
      <trkpt lat="42.44539" lon="0.02175">
        <ele>977.5</ele>
        <time>2017-07-31T10:10:14Z</time>
      </trkpt>
      <trkpt lat="42.44542" lon="0.02173">
        <ele>978.3</ele>
        <time>2017-07-31T10:10:17Z</time>
      </trkpt>
      <trkpt lat="42.44546" lon="0.02173">
        <ele>978.7</ele>
        <time>2017-07-31T10:10:20Z</time>
      </trkpt>
      <trkpt lat="42.44549" lon="0.02174">
        <ele>979</ele>
        <time>2017-07-31T10:10:23Z</time>
      </trkpt>
      <trkpt lat="42.44553" lon="0.02175">
        <ele>979.6</ele>
        <time>2017-07-31T10:10:26Z</time>
      </trkpt>
      <trkpt lat="42.44557" lon="0.02176">
        <ele>980.4</ele>
        <time>2017-07-31T10:10:29Z</time>
      </trkpt>
      <trkpt lat="42.44559" lon="0.02177">
        <ele>981</ele>
        <time>2017-07-31T10:10:31Z</time>
      </trkpt>
      <trkpt lat="42.44563" lon="0.0218">
        <ele>981.4</ele>
        <time>2017-07-31T10:10:34Z</time>
      </trkpt>
      <trkpt lat="42.44566" lon="0.02182">
        <ele>982</ele>
        <time>2017-07-31T10:10:37Z</time>
      </trkpt>
      <trkpt lat="42.44569" lon="0.02185">
        <ele>982.8</ele>
        <time>2017-07-31T10:10:40Z</time>
      </trkpt>
      <trkpt lat="42.44572" lon="0.02188">
        <ele>983.3</ele>
        <time>2017-07-31T10:10:43Z</time>
      </trkpt>
      <trkpt lat="42.44575" lon="0.02191">
        <ele>983.9</ele>
        <time>2017-07-31T10:10:46Z</time>
      </trkpt>
      <trkpt lat="42.44578" lon="0.02194">
        <ele>984.5</ele>
        <time>2017-07-31T10:10:49Z</time>
      </trkpt>
      <trkpt lat="42.44581" lon="0.02196">
        <ele>985.1</ele>
        <time>2017-07-31T10:10:51Z</time>
      </trkpt>
      <trkpt lat="42.44584" lon="0.02197">
        <ele>985.6</ele>
        <time>2017-07-31T10:10:53Z</time>
      </trkpt>
      <trkpt lat="42.44587" lon="0.02197">
        <ele>986</ele>
        <time>2017-07-31T10:10:55Z</time>
      </trkpt>
      <trkpt lat="42.44591" lon="0.02198">
        <ele>986.7</ele>
        <time>2017-07-31T10:10:57Z</time>
      </trkpt>
      <trkpt lat="42.44595" lon="0.02197">
        <ele>987.3</ele>
        <time>2017-07-31T10:10:59Z</time>
      </trkpt>
      <trkpt lat="42.446" lon="0.02197">
        <ele>987.6</ele>
        <time>2017-07-31T10:11:01Z</time>
      </trkpt>
      <trkpt lat="42.44604" lon="0.02196">
        <ele>987.9</ele>
        <time>2017-07-31T10:11:03Z</time>
      </trkpt>
      <trkpt lat="42.44608" lon="0.02195">
        <ele>988.3</ele>
        <time>2017-07-31T10:11:05Z</time>
      </trkpt>
      <trkpt lat="42.44612" lon="0.02194">
        <ele>988.8</ele>
        <time>2017-07-31T10:11:07Z</time>
      </trkpt>
      <trkpt lat="42.44617" lon="0.02193">
        <ele>989.1</ele>
        <time>2017-07-31T10:11:09Z</time>
      </trkpt>
      <trkpt lat="42.44621" lon="0.02192">
        <ele>989.2</ele>
        <time>2017-07-31T10:11:11Z</time>
      </trkpt>
      <trkpt lat="42.44625" lon="0.02192">
        <ele>989.4</ele>
        <time>2017-07-31T10:11:13Z</time>
      </trkpt>
      <trkpt lat="42.44629" lon="0.02191">
        <ele>989.5</ele>
        <time>2017-07-31T10:11:15Z</time>
      </trkpt>
      <trkpt lat="42.44634" lon="0.02191">
        <ele>989.7</ele>
        <time>2017-07-31T10:11:17Z</time>
      </trkpt>
      <trkpt lat="42.44639" lon="0.0219">
        <ele>989.9</ele>
        <time>2017-07-31T10:11:19Z</time>
      </trkpt>
      <trkpt lat="42.44644" lon="0.0219">
        <ele>990.3</ele>
        <time>2017-07-31T10:11:21Z</time>
      </trkpt>
      <trkpt lat="42.44649" lon="0.0219">
        <ele>991.4</ele>
        <time>2017-07-31T10:11:23Z</time>
      </trkpt>
      <trkpt lat="42.44653" lon="0.02189">
        <ele>991.5</ele>
        <time>2017-07-31T10:11:25Z</time>
      </trkpt>
      <trkpt lat="42.44658" lon="0.0219">
        <ele>991.6</ele>
        <time>2017-07-31T10:11:27Z</time>
      </trkpt>
      <trkpt lat="42.44663" lon="0.0219">
        <ele>991.6</ele>
        <time>2017-07-31T10:11:29Z</time>
      </trkpt>
      <trkpt lat="42.44669" lon="0.02192">
        <ele>991.6</ele>
        <time>2017-07-31T10:11:31Z</time>
      </trkpt>
      <trkpt lat="42.44674" lon="0.02194">
        <ele>991.6</ele>
        <time>2017-07-31T10:11:33Z</time>
      </trkpt>
      <trkpt lat="42.44678" lon="0.02196">
        <ele>991.7</ele>
        <time>2017-07-31T10:11:35Z</time>
      </trkpt>
      <trkpt lat="42.44683" lon="0.02198">
        <ele>991.7</ele>
        <time>2017-07-31T10:11:37Z</time>
      </trkpt>
      <trkpt lat="42.44686" lon="0.02199">
        <ele>991.7</ele>
        <time>2017-07-31T10:11:38Z</time>
      </trkpt>
      <trkpt lat="42.44689" lon="0.022">
        <ele>991.8</ele>
        <time>2017-07-31T10:11:39Z</time>
      </trkpt>
      <trkpt lat="42.44692" lon="0.02201">
        <ele>991.8</ele>
        <time>2017-07-31T10:11:40Z</time>
      </trkpt>
      <trkpt lat="42.44695" lon="0.02203">
        <ele>991.8</ele>
        <time>2017-07-31T10:11:41Z</time>
      </trkpt>
      <trkpt lat="42.44698" lon="0.02204">
        <ele>991.8</ele>
        <time>2017-07-31T10:11:42Z</time>
      </trkpt>
      <trkpt lat="42.44701" lon="0.02206">
        <ele>991.9</ele>
        <time>2017-07-31T10:11:43Z</time>
      </trkpt>
      <trkpt lat="42.44704" lon="0.02207">
        <ele>991.9</ele>
        <time>2017-07-31T10:11:44Z</time>
      </trkpt>
      <trkpt lat="42.44708" lon="0.02211">
        <ele>992</ele>
        <time>2017-07-31T10:11:46Z</time>
      </trkpt>
      <trkpt lat="42.44712" lon="0.02216">
        <ele>992.1</ele>
        <time>2017-07-31T10:11:48Z</time>
      </trkpt>
      <trkpt lat="42.44714" lon="0.0222">
        <ele>992.2</ele>
        <time>2017-07-31T10:11:50Z</time>
      </trkpt>
      <trkpt lat="42.44714" lon="0.02226">
        <ele>992.2</ele>
        <time>2017-07-31T10:12:02Z</time>
      </trkpt>
      <trkpt lat="42.44716" lon="0.02233">
        <ele>992.4</ele>
        <time>2017-07-31T10:12:04Z</time>
      </trkpt>
      <trkpt lat="42.44717" lon="0.02238">
        <ele>992.4</ele>
        <time>2017-07-31T10:12:05Z</time>
      </trkpt>
      <trkpt lat="42.44717" lon="0.02243">
        <ele>992.5</ele>
        <time>2017-07-31T10:12:06Z</time>
      </trkpt>
      <trkpt lat="42.44718" lon="0.02249">
        <ele>992.6</ele>
        <time>2017-07-31T10:12:07Z</time>
      </trkpt>
      <trkpt lat="42.44719" lon="0.02256">
        <ele>992.6</ele>
        <time>2017-07-31T10:12:08Z</time>
      </trkpt>
      <trkpt lat="42.44721" lon="0.02263">
        <ele>992.7</ele>
        <time>2017-07-31T10:12:09Z</time>
      </trkpt>
      <trkpt lat="42.44723" lon="0.02269">
        <ele>992.8</ele>
        <time>2017-07-31T10:12:10Z</time>
      </trkpt>
      <trkpt lat="42.44724" lon="0.02276">
        <ele>992.8</ele>
        <time>2017-07-31T10:12:11Z</time>
      </trkpt>
      <trkpt lat="42.44726" lon="0.02282">
        <ele>992.8</ele>
        <time>2017-07-31T10:12:12Z</time>
      </trkpt>
      <trkpt lat="42.44728" lon="0.02288">
        <ele>992.7</ele>
        <time>2017-07-31T10:12:13Z</time>
      </trkpt>
      <trkpt lat="42.4473" lon="0.02294">
        <ele>992.7</ele>
        <time>2017-07-31T10:12:14Z</time>
      </trkpt>
      <trkpt lat="42.44733" lon="0.023">
        <ele>992.6</ele>
        <time>2017-07-31T10:12:15Z</time>
      </trkpt>
      <trkpt lat="42.44734" lon="0.02306">
        <ele>992.6</ele>
        <time>2017-07-31T10:12:16Z</time>
      </trkpt>
      <trkpt lat="42.44736" lon="0.02313">
        <ele>992.6</ele>
        <time>2017-07-31T10:12:17Z</time>
      </trkpt>
      <trkpt lat="42.44738" lon="0.02319">
        <ele>992.6</ele>
        <time>2017-07-31T10:12:18Z</time>
      </trkpt>
      <trkpt lat="42.44739" lon="0.02326">
        <ele>992.6</ele>
        <time>2017-07-31T10:12:19Z</time>
      </trkpt>
      <trkpt lat="42.4474" lon="0.02333">
        <ele>992.6</ele>
        <time>2017-07-31T10:12:20Z</time>
      </trkpt>
      <trkpt lat="42.44742" lon="0.02339">
        <ele>992.6</ele>
        <time>2017-07-31T10:12:21Z</time>
      </trkpt>
      <trkpt lat="42.44743" lon="0.02346">
        <ele>992.6</ele>
        <time>2017-07-31T10:12:22Z</time>
      </trkpt>
      <trkpt lat="42.44745" lon="0.02354">
        <ele>992.6</ele>
        <time>2017-07-31T10:12:23Z</time>
      </trkpt>
      <trkpt lat="42.44747" lon="0.02361">
        <ele>992.6</ele>
        <time>2017-07-31T10:12:24Z</time>
      </trkpt>
      <trkpt lat="42.44749" lon="0.02368">
        <ele>992.6</ele>
        <time>2017-07-31T10:12:25Z</time>
      </trkpt>
      <trkpt lat="42.44752" lon="0.02375">
        <ele>992.5</ele>
        <time>2017-07-31T10:12:26Z</time>
      </trkpt>
      <trkpt lat="42.44755" lon="0.02382">
        <ele>992.3</ele>
        <time>2017-07-31T10:12:27Z</time>
      </trkpt>
      <trkpt lat="42.44758" lon="0.02388">
        <ele>992.1</ele>
        <time>2017-07-31T10:12:28Z</time>
      </trkpt>
      <trkpt lat="42.44762" lon="0.02394">
        <ele>992</ele>
        <time>2017-07-31T10:12:29Z</time>
      </trkpt>
      <trkpt lat="42.44766" lon="0.02399">
        <ele>991.8</ele>
        <time>2017-07-31T10:12:30Z</time>
      </trkpt>
      <trkpt lat="42.44771" lon="0.02404">
        <ele>991.7</ele>
        <time>2017-07-31T10:12:31Z</time>
      </trkpt>
      <trkpt lat="42.44777" lon="0.02409">
        <ele>991.6</ele>
        <time>2017-07-31T10:12:32Z</time>
      </trkpt>
      <trkpt lat="42.44782" lon="0.02412">
        <ele>991.4</ele>
        <time>2017-07-31T10:12:33Z</time>
      </trkpt>
      <trkpt lat="42.44785" lon="0.02415">
        <ele>991.4</ele>
        <time>2017-07-31T10:12:34Z</time>
      </trkpt>
      <trkpt lat="42.44788" lon="0.02418">
        <ele>991.5</ele>
        <time>2017-07-31T10:12:35Z</time>
      </trkpt>
      <trkpt lat="42.44792" lon="0.02421">
        <ele>991.7</ele>
        <time>2017-07-31T10:12:36Z</time>
      </trkpt>
      <trkpt lat="42.44795" lon="0.02424">
        <ele>991.9</ele>
        <time>2017-07-31T10:12:37Z</time>
      </trkpt>
      <trkpt lat="42.44799" lon="0.02428">
        <ele>992.5</ele>
        <time>2017-07-31T10:12:38Z</time>
      </trkpt>
      <trkpt lat="42.44804" lon="0.02432">
        <ele>993</ele>
        <time>2017-07-31T10:12:39Z</time>
      </trkpt>
      <trkpt lat="42.4481" lon="0.02435">
        <ele>993.4</ele>
        <time>2017-07-31T10:12:40Z</time>
      </trkpt>
      <trkpt lat="42.44815" lon="0.02437">
        <ele>993.7</ele>
        <time>2017-07-31T10:12:41Z</time>
      </trkpt>
      <trkpt lat="42.44821" lon="0.02439">
        <ele>993.8</ele>
        <time>2017-07-31T10:12:42Z</time>
      </trkpt>
      <trkpt lat="42.44826" lon="0.02441">
        <ele>993.8</ele>
        <time>2017-07-31T10:12:43Z</time>
      </trkpt>
      <trkpt lat="42.44832" lon="0.02443">
        <ele>993.8</ele>
        <time>2017-07-31T10:12:44Z</time>
      </trkpt>
      <trkpt lat="42.44837" lon="0.02446">
        <ele>993.8</ele>
        <time>2017-07-31T10:12:45Z</time>
      </trkpt>
      <trkpt lat="42.44843" lon="0.02448">
        <ele>993.8</ele>
        <time>2017-07-31T10:12:46Z</time>
      </trkpt>
      <trkpt lat="42.44849" lon="0.02448">
        <ele>993.8</ele>
        <time>2017-07-31T10:12:47Z</time>
      </trkpt>
      <trkpt lat="42.44855" lon="0.02447">
        <ele>993.9</ele>
        <time>2017-07-31T10:12:48Z</time>
      </trkpt>
      <trkpt lat="42.44861" lon="0.02445">
        <ele>993.9</ele>
        <time>2017-07-31T10:12:49Z</time>
      </trkpt>
      <trkpt lat="42.44866" lon="0.02443">
        <ele>994</ele>
        <time>2017-07-31T10:12:50Z</time>
      </trkpt>
      <trkpt lat="42.44871" lon="0.02441">
        <ele>994</ele>
        <time>2017-07-31T10:12:51Z</time>
      </trkpt>
      <trkpt lat="42.44876" lon="0.02441">
        <ele>994.1</ele>
        <time>2017-07-31T10:12:52Z</time>
      </trkpt>
      <trkpt lat="42.44881" lon="0.02441">
        <ele>994.1</ele>
        <time>2017-07-31T10:12:53Z</time>
      </trkpt>
      <trkpt lat="42.44886" lon="0.02442">
        <ele>994.2</ele>
        <time>2017-07-31T10:12:54Z</time>
      </trkpt>
      <trkpt lat="42.44891" lon="0.02444">
        <ele>994.3</ele>
        <time>2017-07-31T10:12:55Z</time>
      </trkpt>
      <trkpt lat="42.44896" lon="0.02446">
        <ele>994.5</ele>
        <time>2017-07-31T10:12:56Z</time>
      </trkpt>
      <trkpt lat="42.449" lon="0.0245">
        <ele>994.6</ele>
        <time>2017-07-31T10:12:57Z</time>
      </trkpt>
      <trkpt lat="42.44904" lon="0.02453">
        <ele>994.8</ele>
        <time>2017-07-31T10:12:58Z</time>
      </trkpt>
      <trkpt lat="42.44907" lon="0.02458">
        <ele>994.9</ele>
        <time>2017-07-31T10:12:59Z</time>
      </trkpt>
      <trkpt lat="42.44909" lon="0.02463">
        <ele>995</ele>
        <time>2017-07-31T10:13:00Z</time>
      </trkpt>
      <trkpt lat="42.44911" lon="0.02468">
        <ele>995.2</ele>
        <time>2017-07-31T10:13:01Z</time>
      </trkpt>
      <trkpt lat="42.44912" lon="0.02473">
        <ele>995.3</ele>
        <time>2017-07-31T10:13:02Z</time>
      </trkpt>
      <trkpt lat="42.44913" lon="0.02478">
        <ele>995.4</ele>
        <time>2017-07-31T10:13:03Z</time>
      </trkpt>
      <trkpt lat="42.44914" lon="0.02483">
        <ele>995.6</ele>
        <time>2017-07-31T10:13:04Z</time>
      </trkpt>
      <trkpt lat="42.44914" lon="0.02488">
        <ele>995.7</ele>
        <time>2017-07-31T10:13:05Z</time>
      </trkpt>
      <trkpt lat="42.44913" lon="0.02493">
        <ele>995.9</ele>
        <time>2017-07-31T10:13:06Z</time>
      </trkpt>
      <trkpt lat="42.44912" lon="0.02496">
        <ele>996</ele>
        <time>2017-07-31T10:13:07Z</time>
      </trkpt>
      <trkpt lat="42.44912" lon="0.02501">
        <ele>996.2</ele>
        <time>2017-07-31T10:13:08Z</time>
      </trkpt>
      <trkpt lat="42.44911" lon="0.02505">
        <ele>996.4</ele>
        <time>2017-07-31T10:13:09Z</time>
      </trkpt>
      <trkpt lat="42.4491" lon="0.02509">
        <ele>996.7</ele>
        <time>2017-07-31T10:13:10Z</time>
      </trkpt>
      <trkpt lat="42.44908" lon="0.02512">
        <ele>997.3</ele>
        <time>2017-07-31T10:13:11Z</time>
      </trkpt>
      <trkpt lat="42.44906" lon="0.02516">
        <ele>999.2</ele>
        <time>2017-07-31T10:13:12Z</time>
      </trkpt>
      <trkpt lat="42.44904" lon="0.0252">
        <ele>999.4</ele>
        <time>2017-07-31T10:13:13Z</time>
      </trkpt>
      <trkpt lat="42.44903" lon="0.02525">
        <ele>999.6</ele>
        <time>2017-07-31T10:13:14Z</time>
      </trkpt>
      <trkpt lat="42.44901" lon="0.0253">
        <ele>999.9</ele>
        <time>2017-07-31T10:13:15Z</time>
      </trkpt>
      <trkpt lat="42.449" lon="0.02535">
        <ele>1000</ele>
        <time>2017-07-31T10:13:16Z</time>
      </trkpt>
      <trkpt lat="42.449" lon="0.02541">
        <ele>1000.1</ele>
        <time>2017-07-31T10:13:17Z</time>
      </trkpt>
      <trkpt lat="42.44899" lon="0.02547">
        <ele>1000.1</ele>
        <time>2017-07-31T10:13:18Z</time>
      </trkpt>
      <trkpt lat="42.44898" lon="0.02554">
        <ele>1000.2</ele>
        <time>2017-07-31T10:13:19Z</time>
      </trkpt>
      <trkpt lat="42.44896" lon="0.02561">
        <ele>1000.2</ele>
        <time>2017-07-31T10:13:20Z</time>
      </trkpt>
      <trkpt lat="42.44895" lon="0.02568">
        <ele>1000.2</ele>
        <time>2017-07-31T10:13:21Z</time>
      </trkpt>
      <trkpt lat="42.44893" lon="0.02574">
        <ele>1000.2</ele>
        <time>2017-07-31T10:13:22Z</time>
      </trkpt>
      <trkpt lat="42.44891" lon="0.02581">
        <ele>1000.2</ele>
        <time>2017-07-31T10:13:23Z</time>
      </trkpt>
      <trkpt lat="42.44889" lon="0.02587">
        <ele>1000.1</ele>
        <time>2017-07-31T10:13:24Z</time>
      </trkpt>
      <trkpt lat="42.44887" lon="0.02593">
        <ele>1000</ele>
        <time>2017-07-31T10:13:25Z</time>
      </trkpt>
      <trkpt lat="42.44887" lon="0.02599">
        <ele>1000</ele>
        <time>2017-07-31T10:13:26Z</time>
      </trkpt>
      <trkpt lat="42.44886" lon="0.02605">
        <ele>1000</ele>
        <time>2017-07-31T10:13:27Z</time>
      </trkpt>
      <trkpt lat="42.44886" lon="0.0261">
        <ele>1000</ele>
        <time>2017-07-31T10:13:28Z</time>
      </trkpt>
      <trkpt lat="42.44885" lon="0.02616">
        <ele>1000</ele>
        <time>2017-07-31T10:13:29Z</time>
      </trkpt>
      <trkpt lat="42.44885" lon="0.02622">
        <ele>1000</ele>
        <time>2017-07-31T10:13:30Z</time>
      </trkpt>
      <trkpt lat="42.44885" lon="0.02628">
        <ele>1000.1</ele>
        <time>2017-07-31T10:13:31Z</time>
      </trkpt>
      <trkpt lat="42.44884" lon="0.02635">
        <ele>1000.1</ele>
        <time>2017-07-31T10:13:32Z</time>
      </trkpt>
      <trkpt lat="42.44883" lon="0.0264">
        <ele>1000.1</ele>
        <time>2017-07-31T10:13:33Z</time>
      </trkpt>
      <trkpt lat="42.44882" lon="0.02646">
        <ele>1000.2</ele>
        <time>2017-07-31T10:13:34Z</time>
      </trkpt>
      <trkpt lat="42.44881" lon="0.02651">
        <ele>1000.2</ele>
        <time>2017-07-31T10:13:35Z</time>
      </trkpt>
      <trkpt lat="42.4488" lon="0.02657">
        <ele>1000.3</ele>
        <time>2017-07-31T10:13:36Z</time>
      </trkpt>
      <trkpt lat="42.44878" lon="0.02662">
        <ele>1000.3</ele>
        <time>2017-07-31T10:13:37Z</time>
      </trkpt>
      <trkpt lat="42.44876" lon="0.02666">
        <ele>1000.3</ele>
        <time>2017-07-31T10:13:38Z</time>
      </trkpt>
      <trkpt lat="42.44874" lon="0.02673">
        <ele>1000.3</ele>
        <time>2017-07-31T10:13:40Z</time>
      </trkpt>
      <trkpt lat="42.44871" lon="0.02676">
        <ele>1000.4</ele>
        <time>2017-07-31T10:13:41Z</time>
      </trkpt>
      <trkpt lat="42.44869" lon="0.02679">
        <ele>1000.4</ele>
        <time>2017-07-31T10:13:42Z</time>
      </trkpt>
      <trkpt lat="42.44867" lon="0.02683">
        <ele>1000.4</ele>
        <time>2017-07-31T10:13:43Z</time>
      </trkpt>
      <trkpt lat="42.44865" lon="0.02687">
        <ele>1000.4</ele>
        <time>2017-07-31T10:13:44Z</time>
      </trkpt>
      <trkpt lat="42.44864" lon="0.02692">
        <ele>1000.4</ele>
        <time>2017-07-31T10:13:45Z</time>
      </trkpt>
      <trkpt lat="42.44866" lon="0.02699">
        <ele>1000.4</ele>
        <time>2017-07-31T10:13:46Z</time>
      </trkpt>
      <trkpt lat="42.44869" lon="0.02705">
        <ele>1000.3</ele>
        <time>2017-07-31T10:13:47Z</time>
      </trkpt>
      <trkpt lat="42.44873" lon="0.02711">
        <ele>1000.1</ele>
        <time>2017-07-31T10:13:48Z</time>
      </trkpt>
      <trkpt lat="42.44876" lon="0.02717">
        <ele>999.8</ele>
        <time>2017-07-31T10:13:49Z</time>
      </trkpt>
      <trkpt lat="42.4488" lon="0.02722">
        <ele>999.5</ele>
        <time>2017-07-31T10:13:50Z</time>
      </trkpt>
      <trkpt lat="42.44885" lon="0.02728">
        <ele>999.1</ele>
        <time>2017-07-31T10:13:51Z</time>
      </trkpt>
      <trkpt lat="42.44888" lon="0.02733">
        <ele>998.8</ele>
        <time>2017-07-31T10:13:52Z</time>
      </trkpt>
      <trkpt lat="42.44892" lon="0.02738">
        <ele>998.5</ele>
        <time>2017-07-31T10:13:53Z</time>
      </trkpt>
      <trkpt lat="42.44896" lon="0.02744">
        <ele>998.2</ele>
        <time>2017-07-31T10:13:54Z</time>
      </trkpt>
      <trkpt lat="42.449" lon="0.0275">
        <ele>998.1</ele>
        <time>2017-07-31T10:13:55Z</time>
      </trkpt>
      <trkpt lat="42.44904" lon="0.02755">
        <ele>998</ele>
        <time>2017-07-31T10:13:56Z</time>
      </trkpt>
      <trkpt lat="42.44909" lon="0.0276">
        <ele>997.9</ele>
        <time>2017-07-31T10:13:57Z</time>
      </trkpt>
      <trkpt lat="42.44914" lon="0.02765">
        <ele>997.8</ele>
        <time>2017-07-31T10:13:58Z</time>
      </trkpt>
      <trkpt lat="42.44919" lon="0.0277">
        <ele>997.7</ele>
        <time>2017-07-31T10:13:59Z</time>
      </trkpt>
      <trkpt lat="42.44924" lon="0.02774">
        <ele>997.6</ele>
        <time>2017-07-31T10:14:00Z</time>
      </trkpt>
      <trkpt lat="42.44928" lon="0.02778">
        <ele>997.4</ele>
        <time>2017-07-31T10:14:01Z</time>
      </trkpt>
      <trkpt lat="42.44931" lon="0.02781">
        <ele>997.3</ele>
        <time>2017-07-31T10:14:02Z</time>
      </trkpt>
      <trkpt lat="42.44934" lon="0.02784">
        <ele>997.2</ele>
        <time>2017-07-31T10:14:03Z</time>
      </trkpt>
      <trkpt lat="42.44937" lon="0.02788">
        <ele>997.1</ele>
        <time>2017-07-31T10:14:04Z</time>
      </trkpt>
      <trkpt lat="42.4494" lon="0.02791">
        <ele>996.9</ele>
        <time>2017-07-31T10:14:05Z</time>
      </trkpt>
      <trkpt lat="42.44944" lon="0.02795">
        <ele>996.8</ele>
        <time>2017-07-31T10:14:06Z</time>
      </trkpt>
      <trkpt lat="42.44947" lon="0.028">
        <ele>996.6</ele>
        <time>2017-07-31T10:14:07Z</time>
      </trkpt>
      <trkpt lat="42.44951" lon="0.02806">
        <ele>996.4</ele>
        <time>2017-07-31T10:14:08Z</time>
      </trkpt>
      <trkpt lat="42.44955" lon="0.02813">
        <ele>996.1</ele>
        <time>2017-07-31T10:14:09Z</time>
      </trkpt>
      <trkpt lat="42.44959" lon="0.02819">
        <ele>995.9</ele>
        <time>2017-07-31T10:14:10Z</time>
      </trkpt>
      <trkpt lat="42.44964" lon="0.02825">
        <ele>995.6</ele>
        <time>2017-07-31T10:14:11Z</time>
      </trkpt>
      <trkpt lat="42.44969" lon="0.02832">
        <ele>995.4</ele>
        <time>2017-07-31T10:14:12Z</time>
      </trkpt>
      <trkpt lat="42.44974" lon="0.02839">
        <ele>994.9</ele>
        <time>2017-07-31T10:14:13Z</time>
      </trkpt>
      <trkpt lat="42.44981" lon="0.02845">
        <ele>994.4</ele>
        <time>2017-07-31T10:14:14Z</time>
      </trkpt>
      <trkpt lat="42.44987" lon="0.02851">
        <ele>993.8</ele>
        <time>2017-07-31T10:14:15Z</time>
      </trkpt>
      <trkpt lat="42.44995" lon="0.02858">
        <ele>993.2</ele>
        <time>2017-07-31T10:14:16Z</time>
      </trkpt>
      <trkpt lat="42.45003" lon="0.02862">
        <ele>992.5</ele>
        <time>2017-07-31T10:14:17Z</time>
      </trkpt>
      <trkpt lat="42.45012" lon="0.02865">
        <ele>991.9</ele>
        <time>2017-07-31T10:14:18Z</time>
      </trkpt>
      <trkpt lat="42.4502" lon="0.0287">
        <ele>991.4</ele>
        <time>2017-07-31T10:14:19Z</time>
      </trkpt>
      <trkpt lat="42.45029" lon="0.02876">
        <ele>990.8</ele>
        <time>2017-07-31T10:14:20Z</time>
      </trkpt>
      <trkpt lat="42.45038" lon="0.02881">
        <ele>990.3</ele>
        <time>2017-07-31T10:14:21Z</time>
      </trkpt>
      <trkpt lat="42.45047" lon="0.02886">
        <ele>989.7</ele>
        <time>2017-07-31T10:14:22Z</time>
      </trkpt>
      <trkpt lat="42.45055" lon="0.0289">
        <ele>989.3</ele>
        <time>2017-07-31T10:14:23Z</time>
      </trkpt>
      <trkpt lat="42.45063" lon="0.02894">
        <ele>988.8</ele>
        <time>2017-07-31T10:14:24Z</time>
      </trkpt>
      <trkpt lat="42.45071" lon="0.02896">
        <ele>988.4</ele>
        <time>2017-07-31T10:14:25Z</time>
      </trkpt>
      <trkpt lat="42.45079" lon="0.02898">
        <ele>988.1</ele>
        <time>2017-07-31T10:14:26Z</time>
      </trkpt>
      <trkpt lat="42.45086" lon="0.02899">
        <ele>987.7</ele>
        <time>2017-07-31T10:14:27Z</time>
      </trkpt>
      <trkpt lat="42.45093" lon="0.02899">
        <ele>987.5</ele>
        <time>2017-07-31T10:14:28Z</time>
      </trkpt>
      <trkpt lat="42.45099" lon="0.02898">
        <ele>987.2</ele>
        <time>2017-07-31T10:14:29Z</time>
      </trkpt>
      <trkpt lat="42.45106" lon="0.02897">
        <ele>987</ele>
        <time>2017-07-31T10:14:30Z</time>
      </trkpt>
      <trkpt lat="42.45112" lon="0.02895">
        <ele>986.8</ele>
        <time>2017-07-31T10:14:31Z</time>
      </trkpt>
      <trkpt lat="42.4512" lon="0.0289">
        <ele>986.6</ele>
        <time>2017-07-31T10:14:32Z</time>
      </trkpt>
      <trkpt lat="42.45126" lon="0.02884">
        <ele>986.4</ele>
        <time>2017-07-31T10:14:33Z</time>
      </trkpt>
      <trkpt lat="42.45132" lon="0.02877">
        <ele>986.1</ele>
        <time>2017-07-31T10:14:34Z</time>
      </trkpt>
      <trkpt lat="42.45137" lon="0.0287">
        <ele>985.8</ele>
        <time>2017-07-31T10:14:35Z</time>
      </trkpt>
      <trkpt lat="42.45142" lon="0.02864">
        <ele>985.6</ele>
        <time>2017-07-31T10:14:36Z</time>
      </trkpt>
      <trkpt lat="42.45146" lon="0.02857">
        <ele>985.4</ele>
        <time>2017-07-31T10:14:37Z</time>
      </trkpt>
      <trkpt lat="42.4515" lon="0.02852">
        <ele>985.3</ele>
        <time>2017-07-31T10:14:38Z</time>
      </trkpt>
      <trkpt lat="42.45153" lon="0.02847">
        <ele>985.3</ele>
        <time>2017-07-31T10:14:39Z</time>
      </trkpt>
      <trkpt lat="42.45157" lon="0.02844">
        <ele>985.2</ele>
        <time>2017-07-31T10:14:40Z</time>
      </trkpt>
      <trkpt lat="42.45161" lon="0.02843">
        <ele>985.2</ele>
        <time>2017-07-31T10:14:41Z</time>
      </trkpt>
      <trkpt lat="42.45165" lon="0.02843">
        <ele>985.2</ele>
        <time>2017-07-31T10:14:42Z</time>
      </trkpt>
      <trkpt lat="42.45169" lon="0.02845">
        <ele>985.3</ele>
        <time>2017-07-31T10:14:43Z</time>
      </trkpt>
      <trkpt lat="42.45174" lon="0.02849">
        <ele>985.3</ele>
        <time>2017-07-31T10:14:44Z</time>
      </trkpt>
      <trkpt lat="42.45178" lon="0.02854">
        <ele>985.3</ele>
        <time>2017-07-31T10:14:45Z</time>
      </trkpt>
      <trkpt lat="42.45181" lon="0.02859">
        <ele>985.3</ele>
        <time>2017-07-31T10:14:46Z</time>
      </trkpt>
      <trkpt lat="42.45184" lon="0.02866">
        <ele>985.2</ele>
        <time>2017-07-31T10:14:47Z</time>
      </trkpt>
      <trkpt lat="42.45185" lon="0.02873">
        <ele>985.2</ele>
        <time>2017-07-31T10:14:48Z</time>
      </trkpt>
      <trkpt lat="42.45186" lon="0.02881">
        <ele>985.1</ele>
        <time>2017-07-31T10:14:49Z</time>
      </trkpt>
      <trkpt lat="42.45188" lon="0.02887">
        <ele>985</ele>
        <time>2017-07-31T10:14:50Z</time>
      </trkpt>
      <trkpt lat="42.4519" lon="0.02894">
        <ele>985</ele>
        <time>2017-07-31T10:14:51Z</time>
      </trkpt>
      <trkpt lat="42.45192" lon="0.02902">
        <ele>985</ele>
        <time>2017-07-31T10:14:52Z</time>
      </trkpt>
      <trkpt lat="42.45194" lon="0.02908">
        <ele>985.2</ele>
        <time>2017-07-31T10:14:53Z</time>
      </trkpt>
      <trkpt lat="42.45195" lon="0.02913">
        <ele>985.2</ele>
        <time>2017-07-31T10:14:54Z</time>
      </trkpt>
      <trkpt lat="42.45197" lon="0.02919">
        <ele>985.3</ele>
        <time>2017-07-31T10:14:55Z</time>
      </trkpt>
      <trkpt lat="42.45197" lon="0.02923">
        <ele>985.4</ele>
        <time>2017-07-31T10:14:56Z</time>
      </trkpt>
      <trkpt lat="42.45198" lon="0.02927">
        <ele>985.5</ele>
        <time>2017-07-31T10:14:57Z</time>
      </trkpt>
      <trkpt lat="42.45198" lon="0.02931">
        <ele>985.5</ele>
        <time>2017-07-31T10:14:58Z</time>
      </trkpt>
      <trkpt lat="42.45199" lon="0.02935">
        <ele>985.7</ele>
        <time>2017-07-31T10:14:59Z</time>
      </trkpt>
      <trkpt lat="42.45201" lon="0.02939">
        <ele>985.9</ele>
        <time>2017-07-31T10:15:00Z</time>
      </trkpt>
      <trkpt lat="42.45204" lon="0.02943">
        <ele>986.4</ele>
        <time>2017-07-31T10:15:01Z</time>
      </trkpt>
      <trkpt lat="42.45207" lon="0.02947">
        <ele>987.2</ele>
        <time>2017-07-31T10:15:02Z</time>
      </trkpt>
      <trkpt lat="42.4521" lon="0.02952">
        <ele>987.6</ele>
        <time>2017-07-31T10:15:03Z</time>
      </trkpt>
      <trkpt lat="42.45215" lon="0.02956">
        <ele>987.9</ele>
        <time>2017-07-31T10:15:04Z</time>
      </trkpt>
      <trkpt lat="42.45219" lon="0.02958">
        <ele>988.1</ele>
        <time>2017-07-31T10:15:05Z</time>
      </trkpt>
      <trkpt lat="42.45223" lon="0.02961">
        <ele>988.3</ele>
        <time>2017-07-31T10:15:06Z</time>
      </trkpt>
      <trkpt lat="42.45227" lon="0.02965">
        <ele>988.5</ele>
        <time>2017-07-31T10:15:07Z</time>
      </trkpt>
      <trkpt lat="42.45231" lon="0.02967">
        <ele>988.6</ele>
        <time>2017-07-31T10:15:08Z</time>
      </trkpt>
      <trkpt lat="42.45236" lon="0.02969">
        <ele>988.7</ele>
        <time>2017-07-31T10:15:09Z</time>
      </trkpt>
      <trkpt lat="42.45239" lon="0.02971">
        <ele>988.8</ele>
        <time>2017-07-31T10:15:10Z</time>
      </trkpt>
      <trkpt lat="42.45242" lon="0.02973">
        <ele>989</ele>
        <time>2017-07-31T10:15:11Z</time>
      </trkpt>
      <trkpt lat="42.45245" lon="0.02974">
        <ele>989.1</ele>
        <time>2017-07-31T10:15:12Z</time>
      </trkpt>
      <trkpt lat="42.45249" lon="0.02976">
        <ele>989.4</ele>
        <time>2017-07-31T10:15:14Z</time>
      </trkpt>
      <trkpt lat="42.45253" lon="0.02979">
        <ele>989.8</ele>
        <time>2017-07-31T10:15:16Z</time>
      </trkpt>
      <trkpt lat="42.45255" lon="0.02981">
        <ele>990.1</ele>
        <time>2017-07-31T10:15:17Z</time>
      </trkpt>
      <trkpt lat="42.45258" lon="0.02984">
        <ele>990.6</ele>
        <time>2017-07-31T10:15:18Z</time>
      </trkpt>
      <trkpt lat="42.45261" lon="0.02986">
        <ele>991.5</ele>
        <time>2017-07-31T10:15:19Z</time>
      </trkpt>
      <trkpt lat="42.45265" lon="0.02988">
        <ele>992.1</ele>
        <time>2017-07-31T10:15:20Z</time>
      </trkpt>
      <trkpt lat="42.45267" lon="0.0299">
        <ele>992.3</ele>
        <time>2017-07-31T10:15:21Z</time>
      </trkpt>
      <trkpt lat="42.4527" lon="0.02991">
        <ele>992.6</ele>
        <time>2017-07-31T10:15:22Z</time>
      </trkpt>
      <trkpt lat="42.45274" lon="0.02994">
        <ele>992.9</ele>
        <time>2017-07-31T10:15:24Z</time>
      </trkpt>
      <trkpt lat="42.45278" lon="0.02996">
        <ele>992.1</ele>
        <time>2017-07-31T10:15:26Z</time>
      </trkpt>
      <trkpt lat="42.45281" lon="0.03001">
        <ele>990.6</ele>
        <time>2017-07-31T10:15:28Z</time>
      </trkpt>
      <trkpt lat="42.45283" lon="0.03003">
        <ele>990</ele>
        <time>2017-07-31T10:15:29Z</time>
      </trkpt>
      <trkpt lat="42.45285" lon="0.03006">
        <ele>989.3</ele>
        <time>2017-07-31T10:15:30Z</time>
      </trkpt>
      <trkpt lat="42.45288" lon="0.0301">
        <ele>988.6</ele>
        <time>2017-07-31T10:15:31Z</time>
      </trkpt>
      <trkpt lat="42.4529" lon="0.03014">
        <ele>988</ele>
        <time>2017-07-31T10:15:32Z</time>
      </trkpt>
      <trkpt lat="42.45292" lon="0.03018">
        <ele>987.5</ele>
        <time>2017-07-31T10:15:33Z</time>
      </trkpt>
      <trkpt lat="42.45294" lon="0.03022">
        <ele>987.1</ele>
        <time>2017-07-31T10:15:34Z</time>
      </trkpt>
      <trkpt lat="42.45296" lon="0.03026">
        <ele>986.9</ele>
        <time>2017-07-31T10:15:35Z</time>
      </trkpt>
      <trkpt lat="42.45299" lon="0.03031">
        <ele>986.6</ele>
        <time>2017-07-31T10:15:36Z</time>
      </trkpt>
      <trkpt lat="42.45301" lon="0.03035">
        <ele>986.1</ele>
        <time>2017-07-31T10:15:37Z</time>
      </trkpt>
      <trkpt lat="42.45302" lon="0.0304">
        <ele>985.6</ele>
        <time>2017-07-31T10:15:38Z</time>
      </trkpt>
      <trkpt lat="42.45303" lon="0.03044">
        <ele>985.1</ele>
        <time>2017-07-31T10:15:39Z</time>
      </trkpt>
      <trkpt lat="42.45304" lon="0.03049">
        <ele>984.6</ele>
        <time>2017-07-31T10:15:40Z</time>
      </trkpt>
      <trkpt lat="42.45304" lon="0.03054">
        <ele>983.9</ele>
        <time>2017-07-31T10:15:41Z</time>
      </trkpt>
      <trkpt lat="42.45305" lon="0.03058">
        <ele>982.9</ele>
        <time>2017-07-31T10:15:42Z</time>
      </trkpt>
      <trkpt lat="42.45305" lon="0.03063">
        <ele>981.9</ele>
        <time>2017-07-31T10:15:43Z</time>
      </trkpt>
      <trkpt lat="42.45305" lon="0.03067">
        <ele>980.9</ele>
        <time>2017-07-31T10:15:44Z</time>
      </trkpt>
      <trkpt lat="42.45305" lon="0.03074">
        <ele>979.5</ele>
        <time>2017-07-31T10:15:46Z</time>
      </trkpt>
      <trkpt lat="42.45305" lon="0.03079">
        <ele>978.4</ele>
        <time>2017-07-31T10:15:48Z</time>
      </trkpt>
      <trkpt lat="42.45306" lon="0.03082">
        <ele>977.5</ele>
        <time>2017-07-31T10:15:51Z</time>
      </trkpt>
      <trkpt lat="42.4531" lon="0.03084">
        <ele>976.2</ele>
        <time>2017-07-31T10:15:54Z</time>
      </trkpt>
      <trkpt lat="42.45313" lon="0.03083">
        <ele>982.8</ele>
        <time>2017-07-31T10:15:56Z</time>
      </trkpt>
      <trkpt lat="42.45316" lon="0.03082">
        <ele>989.5</ele>
        <time>2017-07-31T10:15:58Z</time>
      </trkpt>
      <trkpt lat="42.4532" lon="0.03083">
        <ele>988.9</ele>
        <time>2017-07-31T10:16:00Z</time>
      </trkpt>
      <trkpt lat="42.45323" lon="0.03084">
        <ele>988.5</ele>
        <time>2017-07-31T10:16:02Z</time>
      </trkpt>
      <trkpt lat="42.45326" lon="0.03087">
        <ele>987.9</ele>
        <time>2017-07-31T10:16:04Z</time>
      </trkpt>
      <trkpt lat="42.45328" lon="0.03088">
        <ele>987.4</ele>
        <time>2017-07-31T10:16:06Z</time>
      </trkpt>
      <trkpt lat="42.45331" lon="0.0309">
        <ele>987</ele>
        <time>2017-07-31T10:16:08Z</time>
      </trkpt>
      <trkpt lat="42.45333" lon="0.03092">
        <ele>986.7</ele>
        <time>2017-07-31T10:16:10Z</time>
      </trkpt>
      <trkpt lat="42.45336" lon="0.03095">
        <ele>986.4</ele>
        <time>2017-07-31T10:16:12Z</time>
      </trkpt>
      <trkpt lat="42.45338" lon="0.03099">
        <ele>986.1</ele>
        <time>2017-07-31T10:16:14Z</time>
      </trkpt>
      <trkpt lat="42.4534" lon="0.03103">
        <ele>985.7</ele>
        <time>2017-07-31T10:16:16Z</time>
      </trkpt>
      <trkpt lat="42.45341" lon="0.03106">
        <ele>985.5</ele>
        <time>2017-07-31T10:16:18Z</time>
      </trkpt>
      <trkpt lat="42.45339" lon="0.03103">
        <ele>985.3</ele>
        <time>2017-07-31T10:17:56Z</time>
      </trkpt>
      <trkpt lat="42.45339" lon="0.03111">
        <ele>984.9</ele>
        <time>2017-07-31T10:18:53Z</time>
      </trkpt>
      <trkpt lat="42.45338" lon="0.03117">
        <ele>984.6</ele>
        <time>2017-07-31T10:18:56Z</time>
      </trkpt>
      <trkpt lat="42.45339" lon="0.03122">
        <ele>984.4</ele>
        <time>2017-07-31T10:18:58Z</time>
      </trkpt>
      <trkpt lat="42.4534" lon="0.03129">
        <ele>984</ele>
        <time>2017-07-31T10:19:00Z</time>
      </trkpt>
      <trkpt lat="42.4534" lon="0.03132">
        <ele>983.8</ele>
        <time>2017-07-31T10:19:01Z</time>
      </trkpt>
      <trkpt lat="42.45341" lon="0.03136">
        <ele>983.7</ele>
        <time>2017-07-31T10:19:02Z</time>
      </trkpt>
      <trkpt lat="42.45342" lon="0.03142">
        <ele>983.3</ele>
        <time>2017-07-31T10:19:04Z</time>
      </trkpt>
      <trkpt lat="42.45344" lon="0.03148">
        <ele>982.9</ele>
        <time>2017-07-31T10:19:06Z</time>
      </trkpt>
      <trkpt lat="42.45347" lon="0.03153">
        <ele>982.5</ele>
        <time>2017-07-31T10:19:08Z</time>
      </trkpt>
      <trkpt lat="42.45349" lon="0.0316">
        <ele>982.1</ele>
        <time>2017-07-31T10:19:10Z</time>
      </trkpt>
      <trkpt lat="42.45349" lon="0.03167">
        <ele>981.3</ele>
        <time>2017-07-31T10:19:12Z</time>
      </trkpt>
      <trkpt lat="42.45348" lon="0.03174">
        <ele>979.4</ele>
        <time>2017-07-31T10:19:14Z</time>
      </trkpt>
      <trkpt lat="42.45348" lon="0.03178">
        <ele>978.4</ele>
        <time>2017-07-31T10:19:15Z</time>
      </trkpt>
      <trkpt lat="42.45348" lon="0.03183">
        <ele>978</ele>
        <time>2017-07-31T10:19:17Z</time>
      </trkpt>
      <trkpt lat="42.45351" lon="0.03184">
        <ele>977.6</ele>
        <time>2017-07-31T10:19:20Z</time>
      </trkpt>
      <trkpt lat="42.45355" lon="0.03179">
        <ele>977</ele>
        <time>2017-07-31T10:19:22Z</time>
      </trkpt>
      <trkpt lat="42.45358" lon="0.03174">
        <ele>976.7</ele>
        <time>2017-07-31T10:19:24Z</time>
      </trkpt>
      <trkpt lat="42.45361" lon="0.03172">
        <ele>976.5</ele>
        <time>2017-07-31T10:19:25Z</time>
      </trkpt>
      <trkpt lat="42.45363" lon="0.03169">
        <ele>976.4</ele>
        <time>2017-07-31T10:19:26Z</time>
      </trkpt>
      <trkpt lat="42.45366" lon="0.03167">
        <ele>976.3</ele>
        <time>2017-07-31T10:19:27Z</time>
      </trkpt>
      <trkpt lat="42.45369" lon="0.03164">
        <ele>976</ele>
        <time>2017-07-31T10:19:28Z</time>
      </trkpt>
      <trkpt lat="42.45371" lon="0.03161">
        <ele>975.7</ele>
        <time>2017-07-31T10:19:29Z</time>
      </trkpt>
      <trkpt lat="42.45374" lon="0.03158">
        <ele>975.4</ele>
        <time>2017-07-31T10:19:30Z</time>
      </trkpt>
      <trkpt lat="42.45377" lon="0.03155">
        <ele>975</ele>
        <time>2017-07-31T10:19:31Z</time>
      </trkpt>
      <trkpt lat="42.45379" lon="0.03151">
        <ele>974.7</ele>
        <time>2017-07-31T10:19:32Z</time>
      </trkpt>
      <trkpt lat="42.45382" lon="0.03147">
        <ele>974.4</ele>
        <time>2017-07-31T10:19:33Z</time>
      </trkpt>
      <trkpt lat="42.45385" lon="0.03143">
        <ele>974.2</ele>
        <time>2017-07-31T10:19:34Z</time>
      </trkpt>
      <trkpt lat="42.45389" lon="0.03141">
        <ele>974</ele>
        <time>2017-07-31T10:19:35Z</time>
      </trkpt>
      <trkpt lat="42.45393" lon="0.0314">
        <ele>973.8</ele>
        <time>2017-07-31T10:19:36Z</time>
      </trkpt>
      <trkpt lat="42.45397" lon="0.0314">
        <ele>973.5</ele>
        <time>2017-07-31T10:19:37Z</time>
      </trkpt>
      <trkpt lat="42.45402" lon="0.0314">
        <ele>973.2</ele>
        <time>2017-07-31T10:19:38Z</time>
      </trkpt>
      <trkpt lat="42.45406" lon="0.03138">
        <ele>972.9</ele>
        <time>2017-07-31T10:19:39Z</time>
      </trkpt>
      <trkpt lat="42.4541" lon="0.03136">
        <ele>972.7</ele>
        <time>2017-07-31T10:19:40Z</time>
      </trkpt>
      <trkpt lat="42.45413" lon="0.03133">
        <ele>972.6</ele>
        <time>2017-07-31T10:19:41Z</time>
      </trkpt>
      <trkpt lat="42.45415" lon="0.03129">
        <ele>972.6</ele>
        <time>2017-07-31T10:19:42Z</time>
      </trkpt>
      <trkpt lat="42.45417" lon="0.03124">
        <ele>972.6</ele>
        <time>2017-07-31T10:19:43Z</time>
      </trkpt>
      <trkpt lat="42.45418" lon="0.03118">
        <ele>972.6</ele>
        <time>2017-07-31T10:19:44Z</time>
      </trkpt>
      <trkpt lat="42.45418" lon="0.03113">
        <ele>972.6</ele>
        <time>2017-07-31T10:19:45Z</time>
      </trkpt>
      <trkpt lat="42.45417" lon="0.03108">
        <ele>972.7</ele>
        <time>2017-07-31T10:19:46Z</time>
      </trkpt>
      <trkpt lat="42.45416" lon="0.03104">
        <ele>972.8</ele>
        <time>2017-07-31T10:19:47Z</time>
      </trkpt>
      <trkpt lat="42.45415" lon="0.031">
        <ele>972.9</ele>
        <time>2017-07-31T10:19:48Z</time>
      </trkpt>
      <trkpt lat="42.45413" lon="0.03097">
        <ele>973</ele>
        <time>2017-07-31T10:19:49Z</time>
      </trkpt>
      <trkpt lat="42.45412" lon="0.03094">
        <ele>973.2</ele>
        <time>2017-07-31T10:19:50Z</time>
      </trkpt>
      <trkpt lat="42.4541" lon="0.0309">
        <ele>973.3</ele>
        <time>2017-07-31T10:19:51Z</time>
      </trkpt>
      <trkpt lat="42.45409" lon="0.03087">
        <ele>973.6</ele>
        <time>2017-07-31T10:19:52Z</time>
      </trkpt>
      <trkpt lat="42.45406" lon="0.03081">
        <ele>974.2</ele>
        <time>2017-07-31T10:19:54Z</time>
      </trkpt>
      <trkpt lat="42.45404" lon="0.03075">
        <ele>974.4</ele>
        <time>2017-07-31T10:19:56Z</time>
      </trkpt>
      <trkpt lat="42.45403" lon="0.03071">
        <ele>974.6</ele>
        <time>2017-07-31T10:19:57Z</time>
      </trkpt>
      <trkpt lat="42.45401" lon="0.03068">
        <ele>974.7</ele>
        <time>2017-07-31T10:19:58Z</time>
      </trkpt>
      <trkpt lat="42.454" lon="0.03065">
        <ele>974.7</ele>
        <time>2017-07-31T10:19:59Z</time>
      </trkpt>
      <trkpt lat="42.45398" lon="0.03061">
        <ele>974.8</ele>
        <time>2017-07-31T10:20:00Z</time>
      </trkpt>
      <trkpt lat="42.45397" lon="0.03058">
        <ele>974.8</ele>
        <time>2017-07-31T10:20:01Z</time>
      </trkpt>
      <trkpt lat="42.45394" lon="0.03052">
        <ele>974.9</ele>
        <time>2017-07-31T10:20:03Z</time>
      </trkpt>
      <trkpt lat="42.45393" lon="0.03049">
        <ele>974.9</ele>
        <time>2017-07-31T10:20:04Z</time>
      </trkpt>
      <trkpt lat="42.45391" lon="0.03046">
        <ele>974.9</ele>
        <time>2017-07-31T10:20:05Z</time>
      </trkpt>
      <trkpt lat="42.45389" lon="0.03043">
        <ele>974.9</ele>
        <time>2017-07-31T10:20:06Z</time>
      </trkpt>
      <trkpt lat="42.45386" lon="0.03037">
        <ele>974.9</ele>
        <time>2017-07-31T10:20:08Z</time>
      </trkpt>
      <trkpt lat="42.45384" lon="0.03034">
        <ele>974.9</ele>
        <time>2017-07-31T10:20:09Z</time>
      </trkpt>
      <trkpt lat="42.45383" lon="0.0303">
        <ele>974.9</ele>
        <time>2017-07-31T10:20:10Z</time>
      </trkpt>
      <trkpt lat="42.45381" lon="0.03027">
        <ele>974.9</ele>
        <time>2017-07-31T10:20:11Z</time>
      </trkpt>
      <trkpt lat="42.45379" lon="0.03022">
        <ele>974.9</ele>
        <time>2017-07-31T10:20:12Z</time>
      </trkpt>
      <trkpt lat="42.45377" lon="0.03018">
        <ele>975</ele>
        <time>2017-07-31T10:20:13Z</time>
      </trkpt>
      <trkpt lat="42.45375" lon="0.03013">
        <ele>975</ele>
        <time>2017-07-31T10:20:14Z</time>
      </trkpt>
      <trkpt lat="42.45373" lon="0.03009">
        <ele>975</ele>
        <time>2017-07-31T10:20:15Z</time>
      </trkpt>
      <trkpt lat="42.45371" lon="0.03005">
        <ele>975</ele>
        <time>2017-07-31T10:20:16Z</time>
      </trkpt>
      <trkpt lat="42.45369" lon="0.03">
        <ele>975</ele>
        <time>2017-07-31T10:20:17Z</time>
      </trkpt>
      <trkpt lat="42.45367" lon="0.02995">
        <ele>975</ele>
        <time>2017-07-31T10:20:18Z</time>
      </trkpt>
      <trkpt lat="42.45365" lon="0.0299">
        <ele>975</ele>
        <time>2017-07-31T10:20:19Z</time>
      </trkpt>
      <trkpt lat="42.45363" lon="0.02985">
        <ele>975</ele>
        <time>2017-07-31T10:20:20Z</time>
      </trkpt>
      <trkpt lat="42.45361" lon="0.0298">
        <ele>974.8</ele>
        <time>2017-07-31T10:20:21Z</time>
      </trkpt>
      <trkpt lat="42.4536" lon="0.02975">
        <ele>974.7</ele>
        <time>2017-07-31T10:20:22Z</time>
      </trkpt>
      <trkpt lat="42.45359" lon="0.0297">
        <ele>974.6</ele>
        <time>2017-07-31T10:20:23Z</time>
      </trkpt>
      <trkpt lat="42.45358" lon="0.02963">
        <ele>974.4</ele>
        <time>2017-07-31T10:20:25Z</time>
      </trkpt>
      <trkpt lat="42.45359" lon="0.0296">
        <ele>974.1</ele>
        <time>2017-07-31T10:20:26Z</time>
      </trkpt>
      <trkpt lat="42.4536" lon="0.02956">
        <ele>973.9</ele>
        <time>2017-07-31T10:20:27Z</time>
      </trkpt>
      <trkpt lat="42.45362" lon="0.02952">
        <ele>973.6</ele>
        <time>2017-07-31T10:20:28Z</time>
      </trkpt>
      <trkpt lat="42.45364" lon="0.02949">
        <ele>973.4</ele>
        <time>2017-07-31T10:20:29Z</time>
      </trkpt>
      <trkpt lat="42.45366" lon="0.02946">
        <ele>973.2</ele>
        <time>2017-07-31T10:20:30Z</time>
      </trkpt>
      <trkpt lat="42.45367" lon="0.02941">
        <ele>973.1</ele>
        <time>2017-07-31T10:20:31Z</time>
      </trkpt>
      <trkpt lat="42.45368" lon="0.02937">
        <ele>973</ele>
        <time>2017-07-31T10:20:32Z</time>
      </trkpt>
      <trkpt lat="42.45368" lon="0.02933">
        <ele>973</ele>
        <time>2017-07-31T10:20:33Z</time>
      </trkpt>
      <trkpt lat="42.45368" lon="0.02929">
        <ele>973</ele>
        <time>2017-07-31T10:20:34Z</time>
      </trkpt>
      <trkpt lat="42.45368" lon="0.02925">
        <ele>972.9</ele>
        <time>2017-07-31T10:20:35Z</time>
      </trkpt>
      <trkpt lat="42.45368" lon="0.0292">
        <ele>972.9</ele>
        <time>2017-07-31T10:20:36Z</time>
      </trkpt>
      <trkpt lat="42.45369" lon="0.02916">
        <ele>972.9</ele>
        <time>2017-07-31T10:20:37Z</time>
      </trkpt>
      <trkpt lat="42.4537" lon="0.02911">
        <ele>972.9</ele>
        <time>2017-07-31T10:20:38Z</time>
      </trkpt>
      <trkpt lat="42.45371" lon="0.02907">
        <ele>972.9</ele>
        <time>2017-07-31T10:20:39Z</time>
      </trkpt>
      <trkpt lat="42.45372" lon="0.02903">
        <ele>973</ele>
        <time>2017-07-31T10:20:40Z</time>
      </trkpt>
      <trkpt lat="42.45372" lon="0.02898">
        <ele>973</ele>
        <time>2017-07-31T10:20:41Z</time>
      </trkpt>
      <trkpt lat="42.45373" lon="0.02894">
        <ele>973</ele>
        <time>2017-07-31T10:20:42Z</time>
      </trkpt>
      <trkpt lat="42.45374" lon="0.02889">
        <ele>973.1</ele>
        <time>2017-07-31T10:20:43Z</time>
      </trkpt>
      <trkpt lat="42.45375" lon="0.02885">
        <ele>973.2</ele>
        <time>2017-07-31T10:20:44Z</time>
      </trkpt>
      <trkpt lat="42.45375" lon="0.02881">
        <ele>973.3</ele>
        <time>2017-07-31T10:20:45Z</time>
      </trkpt>
      <trkpt lat="42.45376" lon="0.02877">
        <ele>973.4</ele>
        <time>2017-07-31T10:20:46Z</time>
      </trkpt>
      <trkpt lat="42.45377" lon="0.02874">
        <ele>973.7</ele>
        <time>2017-07-31T10:20:47Z</time>
      </trkpt>
      <trkpt lat="42.45377" lon="0.0287">
        <ele>974.2</ele>
        <time>2017-07-31T10:20:48Z</time>
      </trkpt>
      <trkpt lat="42.45379" lon="0.02863">
        <ele>975</ele>
        <time>2017-07-31T10:20:50Z</time>
      </trkpt>
      <trkpt lat="42.4538" lon="0.02857">
        <ele>975.3</ele>
        <time>2017-07-31T10:20:52Z</time>
      </trkpt>
      <trkpt lat="42.45382" lon="0.02851">
        <ele>975.6</ele>
        <time>2017-07-31T10:20:54Z</time>
      </trkpt>
      <trkpt lat="42.45384" lon="0.02845">
        <ele>976.7</ele>
        <time>2017-07-31T10:20:56Z</time>
      </trkpt>
      <trkpt lat="42.45386" lon="0.02841">
        <ele>977.2</ele>
        <time>2017-07-31T10:20:58Z</time>
      </trkpt>
      <trkpt lat="42.4539" lon="0.02838">
        <ele>977.5</ele>
        <time>2017-07-31T10:21:00Z</time>
      </trkpt>
      <trkpt lat="42.45394" lon="0.02836">
        <ele>977.9</ele>
        <time>2017-07-31T10:21:02Z</time>
      </trkpt>
      <trkpt lat="42.45397" lon="0.02836">
        <ele>978.5</ele>
        <time>2017-07-31T10:21:04Z</time>
      </trkpt>
      <trkpt lat="42.45401" lon="0.02838">
        <ele>978.9</ele>
        <time>2017-07-31T10:21:06Z</time>
      </trkpt>
      <trkpt lat="42.45404" lon="0.0284">
        <ele>979.1</ele>
        <time>2017-07-31T10:21:08Z</time>
      </trkpt>
      <trkpt lat="42.45407" lon="0.02842">
        <ele>979.2</ele>
        <time>2017-07-31T10:21:10Z</time>
      </trkpt>
      <trkpt lat="42.4541" lon="0.02845">
        <ele>979.3</ele>
        <time>2017-07-31T10:21:12Z</time>
      </trkpt>
      <trkpt lat="42.45414" lon="0.02848">
        <ele>979.4</ele>
        <time>2017-07-31T10:21:14Z</time>
      </trkpt>
      <trkpt lat="42.45419" lon="0.02851">
        <ele>979.4</ele>
        <time>2017-07-31T10:21:16Z</time>
      </trkpt>
      <trkpt lat="42.45423" lon="0.02853">
        <ele>979.5</ele>
        <time>2017-07-31T10:21:18Z</time>
      </trkpt>
      <trkpt lat="42.45428" lon="0.02853">
        <ele>979.6</ele>
        <time>2017-07-31T10:21:20Z</time>
      </trkpt>
      <trkpt lat="42.45432" lon="0.02853">
        <ele>979.7</ele>
        <time>2017-07-31T10:21:22Z</time>
      </trkpt>
      <trkpt lat="42.45438" lon="0.02854">
        <ele>979.8</ele>
        <time>2017-07-31T10:21:24Z</time>
      </trkpt>
      <trkpt lat="42.45441" lon="0.02854">
        <ele>979.9</ele>
        <time>2017-07-31T10:21:25Z</time>
      </trkpt>
      <trkpt lat="42.45444" lon="0.02855">
        <ele>980</ele>
        <time>2017-07-31T10:21:26Z</time>
      </trkpt>
      <trkpt lat="42.45447" lon="0.02856">
        <ele>980</ele>
        <time>2017-07-31T10:21:27Z</time>
      </trkpt>
      <trkpt lat="42.45451" lon="0.02858">
        <ele>980.1</ele>
        <time>2017-07-31T10:21:28Z</time>
      </trkpt>
      <trkpt lat="42.45454" lon="0.02859">
        <ele>980.3</ele>
        <time>2017-07-31T10:21:29Z</time>
      </trkpt>
      <trkpt lat="42.45457" lon="0.0286">
        <ele>980.4</ele>
        <time>2017-07-31T10:21:30Z</time>
      </trkpt>
      <trkpt lat="42.4546" lon="0.0286">
        <ele>980.7</ele>
        <time>2017-07-31T10:21:31Z</time>
      </trkpt>
      <trkpt lat="42.45463" lon="0.0286">
        <ele>981</ele>
        <time>2017-07-31T10:21:32Z</time>
      </trkpt>
      <trkpt lat="42.45465" lon="0.02859">
        <ele>981.1</ele>
        <time>2017-07-31T10:21:33Z</time>
      </trkpt>
      <trkpt lat="42.45468" lon="0.02859">
        <ele>981.2</ele>
        <time>2017-07-31T10:21:34Z</time>
      </trkpt>
      <trkpt lat="42.45471" lon="0.02858">
        <ele>981.2</ele>
        <time>2017-07-31T10:21:35Z</time>
      </trkpt>
      <trkpt lat="42.45474" lon="0.02858">
        <ele>981.2</ele>
        <time>2017-07-31T10:21:36Z</time>
      </trkpt>
      <trkpt lat="42.45477" lon="0.02857">
        <ele>981.2</ele>
        <time>2017-07-31T10:21:37Z</time>
      </trkpt>
      <trkpt lat="42.4548" lon="0.02857">
        <ele>981.2</ele>
        <time>2017-07-31T10:21:38Z</time>
      </trkpt>
      <trkpt lat="42.45484" lon="0.02857">
        <ele>981.2</ele>
        <time>2017-07-31T10:21:39Z</time>
      </trkpt>
      <trkpt lat="42.45488" lon="0.02857">
        <ele>981.2</ele>
        <time>2017-07-31T10:21:40Z</time>
      </trkpt>
      <trkpt lat="42.45492" lon="0.02856">
        <ele>981.1</ele>
        <time>2017-07-31T10:21:41Z</time>
      </trkpt>
      <trkpt lat="42.45496" lon="0.02855">
        <ele>980.9</ele>
        <time>2017-07-31T10:21:42Z</time>
      </trkpt>
      <trkpt lat="42.45501" lon="0.02854">
        <ele>980.6</ele>
        <time>2017-07-31T10:21:43Z</time>
      </trkpt>
      <trkpt lat="42.45506" lon="0.02854">
        <ele>980.3</ele>
        <time>2017-07-31T10:21:44Z</time>
      </trkpt>
      <trkpt lat="42.45511" lon="0.02853">
        <ele>979.8</ele>
        <time>2017-07-31T10:21:45Z</time>
      </trkpt>
      <trkpt lat="42.45516" lon="0.02853">
        <ele>979.5</ele>
        <time>2017-07-31T10:21:46Z</time>
      </trkpt>
      <trkpt lat="42.45519" lon="0.02854">
        <ele>979.3</ele>
        <time>2017-07-31T10:21:47Z</time>
      </trkpt>
      <trkpt lat="42.45522" lon="0.02855">
        <ele>979.1</ele>
        <time>2017-07-31T10:21:48Z</time>
      </trkpt>
      <trkpt lat="42.45526" lon="0.0286">
        <ele>978.5</ele>
        <time>2017-07-31T10:21:50Z</time>
      </trkpt>
      <trkpt lat="42.45528" lon="0.02864">
        <ele>978.1</ele>
        <time>2017-07-31T10:21:51Z</time>
      </trkpt>
      <trkpt lat="42.45529" lon="0.0287">
        <ele>977.5</ele>
        <time>2017-07-31T10:21:52Z</time>
      </trkpt>
      <trkpt lat="42.4553" lon="0.02875">
        <ele>976.9</ele>
        <time>2017-07-31T10:21:53Z</time>
      </trkpt>
      <trkpt lat="42.45531" lon="0.02881">
        <ele>976.2</ele>
        <time>2017-07-31T10:21:54Z</time>
      </trkpt>
      <trkpt lat="42.45533" lon="0.02886">
        <ele>975.5</ele>
        <time>2017-07-31T10:21:55Z</time>
      </trkpt>
      <trkpt lat="42.45534" lon="0.02891">
        <ele>974.7</ele>
        <time>2017-07-31T10:21:56Z</time>
      </trkpt>
      <trkpt lat="42.45536" lon="0.02895">
        <ele>974</ele>
        <time>2017-07-31T10:21:57Z</time>
      </trkpt>
      <trkpt lat="42.45538" lon="0.02898">
        <ele>973.5</ele>
        <time>2017-07-31T10:21:58Z</time>
      </trkpt>
      <trkpt lat="42.4554" lon="0.029">
        <ele>973.1</ele>
        <time>2017-07-31T10:21:59Z</time>
      </trkpt>
      <trkpt lat="42.45545" lon="0.02904">
        <ele>972.6</ele>
        <time>2017-07-31T10:22:01Z</time>
      </trkpt>
      <trkpt lat="42.45547" lon="0.02906">
        <ele>972.3</ele>
        <time>2017-07-31T10:22:02Z</time>
      </trkpt>
      <trkpt lat="42.45551" lon="0.02908">
        <ele>971.8</ele>
        <time>2017-07-31T10:22:03Z</time>
      </trkpt>
      <trkpt lat="42.45554" lon="0.0291">
        <ele>971.3</ele>
        <time>2017-07-31T10:22:04Z</time>
      </trkpt>
      <trkpt lat="42.45558" lon="0.02912">
        <ele>970.8</ele>
        <time>2017-07-31T10:22:05Z</time>
      </trkpt>
      <trkpt lat="42.45561" lon="0.02914">
        <ele>970.3</ele>
        <time>2017-07-31T10:22:06Z</time>
      </trkpt>
      <trkpt lat="42.45565" lon="0.02917">
        <ele>969.8</ele>
        <time>2017-07-31T10:22:07Z</time>
      </trkpt>
      <trkpt lat="42.45568" lon="0.02919">
        <ele>969.3</ele>
        <time>2017-07-31T10:22:08Z</time>
      </trkpt>
      <trkpt lat="42.45571" lon="0.02922">
        <ele>968.9</ele>
        <time>2017-07-31T10:22:09Z</time>
      </trkpt>
      <trkpt lat="42.45574" lon="0.02925">
        <ele>968.5</ele>
        <time>2017-07-31T10:22:10Z</time>
      </trkpt>
      <trkpt lat="42.45578" lon="0.02929">
        <ele>968</ele>
        <time>2017-07-31T10:22:11Z</time>
      </trkpt>
      <trkpt lat="42.45581" lon="0.02932">
        <ele>967.5</ele>
        <time>2017-07-31T10:22:12Z</time>
      </trkpt>
      <trkpt lat="42.45584" lon="0.02936">
        <ele>967.1</ele>
        <time>2017-07-31T10:22:13Z</time>
      </trkpt>
      <trkpt lat="42.45588" lon="0.02939">
        <ele>966.8</ele>
        <time>2017-07-31T10:22:14Z</time>
      </trkpt>
      <trkpt lat="42.4559" lon="0.02941">
        <ele>966.4</ele>
        <time>2017-07-31T10:22:15Z</time>
      </trkpt>
      <trkpt lat="42.45593" lon="0.02943">
        <ele>966</ele>
        <time>2017-07-31T10:22:16Z</time>
      </trkpt>
      <trkpt lat="42.45596" lon="0.02946">
        <ele>965.6</ele>
        <time>2017-07-31T10:22:17Z</time>
      </trkpt>
      <trkpt lat="42.45599" lon="0.0295">
        <ele>965.1</ele>
        <time>2017-07-31T10:22:18Z</time>
      </trkpt>
      <trkpt lat="42.45603" lon="0.02953">
        <ele>964.7</ele>
        <time>2017-07-31T10:22:19Z</time>
      </trkpt>
      <trkpt lat="42.45607" lon="0.02956">
        <ele>964.3</ele>
        <time>2017-07-31T10:22:20Z</time>
      </trkpt>
      <trkpt lat="42.45611" lon="0.02958">
        <ele>963.9</ele>
        <time>2017-07-31T10:22:21Z</time>
      </trkpt>
      <trkpt lat="42.45615" lon="0.0296">
        <ele>963.7</ele>
        <time>2017-07-31T10:22:22Z</time>
      </trkpt>
      <trkpt lat="42.4562" lon="0.02962">
        <ele>963.5</ele>
        <time>2017-07-31T10:22:23Z</time>
      </trkpt>
      <trkpt lat="42.45624" lon="0.02963">
        <ele>963.4</ele>
        <time>2017-07-31T10:22:24Z</time>
      </trkpt>
      <trkpt lat="42.45629" lon="0.02964">
        <ele>963.2</ele>
        <time>2017-07-31T10:22:25Z</time>
      </trkpt>
      <trkpt lat="42.45633" lon="0.02965">
        <ele>963</ele>
        <time>2017-07-31T10:22:26Z</time>
      </trkpt>
      <trkpt lat="42.45636" lon="0.02965">
        <ele>962.7</ele>
        <time>2017-07-31T10:22:27Z</time>
      </trkpt>
      <trkpt lat="42.45639" lon="0.02966">
        <ele>962.3</ele>
        <time>2017-07-31T10:22:28Z</time>
      </trkpt>
      <trkpt lat="42.45644" lon="0.02969">
        <ele>961.5</ele>
        <time>2017-07-31T10:22:30Z</time>
      </trkpt>
      <trkpt lat="42.45648" lon="0.02974">
        <ele>961</ele>
        <time>2017-07-31T10:22:32Z</time>
      </trkpt>
      <trkpt lat="42.4565" lon="0.02977">
        <ele>960.5</ele>
        <time>2017-07-31T10:22:33Z</time>
      </trkpt>
      <trkpt lat="42.45655" lon="0.02978">
        <ele>959.7</ele>
        <time>2017-07-31T10:22:35Z</time>
      </trkpt>
      <trkpt lat="42.45659" lon="0.02975">
        <ele>959</ele>
        <time>2017-07-31T10:22:37Z</time>
      </trkpt>
      <trkpt lat="42.45661" lon="0.02968">
        <ele>958.1</ele>
        <time>2017-07-31T10:22:39Z</time>
      </trkpt>
      <trkpt lat="42.45662" lon="0.02963">
        <ele>957.4</ele>
        <time>2017-07-31T10:22:40Z</time>
      </trkpt>
      <trkpt lat="42.45663" lon="0.02956">
        <ele>956.9</ele>
        <time>2017-07-31T10:22:41Z</time>
      </trkpt>
      <trkpt lat="42.45664" lon="0.02951">
        <ele>956.5</ele>
        <time>2017-07-31T10:22:42Z</time>
      </trkpt>
      <trkpt lat="42.45665" lon="0.02948">
        <ele>956.2</ele>
        <time>2017-07-31T10:22:43Z</time>
      </trkpt>
      <trkpt lat="42.4567" lon="0.02946">
        <ele>955.6</ele>
        <time>2017-07-31T10:22:45Z</time>
      </trkpt>
      <trkpt lat="42.45673" lon="0.02949">
        <ele>955.2</ele>
        <time>2017-07-31T10:22:46Z</time>
      </trkpt>
      <trkpt lat="42.45675" lon="0.02955">
        <ele>954.4</ele>
        <time>2017-07-31T10:22:47Z</time>
      </trkpt>
      <trkpt lat="42.45677" lon="0.02962">
        <ele>953.5</ele>
        <time>2017-07-31T10:22:48Z</time>
      </trkpt>
      <trkpt lat="42.45678" lon="0.02969">
        <ele>952.7</ele>
        <time>2017-07-31T10:22:49Z</time>
      </trkpt>
      <trkpt lat="42.45679" lon="0.02974">
        <ele>952</ele>
        <time>2017-07-31T10:22:50Z</time>
      </trkpt>
      <trkpt lat="42.4568" lon="0.02979">
        <ele>951.3</ele>
        <time>2017-07-31T10:22:51Z</time>
      </trkpt>
      <trkpt lat="42.45681" lon="0.02985">
        <ele>950.6</ele>
        <time>2017-07-31T10:22:52Z</time>
      </trkpt>
      <trkpt lat="42.45682" lon="0.0299">
        <ele>949.9</ele>
        <time>2017-07-31T10:22:53Z</time>
      </trkpt>
      <trkpt lat="42.45684" lon="0.02995">
        <ele>949.1</ele>
        <time>2017-07-31T10:22:54Z</time>
      </trkpt>
      <trkpt lat="42.45685" lon="0.03">
        <ele>948.3</ele>
        <time>2017-07-31T10:22:55Z</time>
      </trkpt>
      <trkpt lat="42.45686" lon="0.03003">
        <ele>947.7</ele>
        <time>2017-07-31T10:22:56Z</time>
      </trkpt>
      <trkpt lat="42.45688" lon="0.03009">
        <ele>946.7</ele>
        <time>2017-07-31T10:22:58Z</time>
      </trkpt>
      <trkpt lat="42.45689" lon="0.03013">
        <ele>946.1</ele>
        <time>2017-07-31T10:22:59Z</time>
      </trkpt>
      <trkpt lat="42.4569" lon="0.03017">
        <ele>945.4</ele>
        <time>2017-07-31T10:23:00Z</time>
      </trkpt>
      <trkpt lat="42.45691" lon="0.03021">
        <ele>944.9</ele>
        <time>2017-07-31T10:23:01Z</time>
      </trkpt>
      <trkpt lat="42.45693" lon="0.03024">
        <ele>944.3</ele>
        <time>2017-07-31T10:23:02Z</time>
      </trkpt>
      <trkpt lat="42.45694" lon="0.03028">
        <ele>943.7</ele>
        <time>2017-07-31T10:23:03Z</time>
      </trkpt>
      <trkpt lat="42.45696" lon="0.03032">
        <ele>943</ele>
        <time>2017-07-31T10:23:04Z</time>
      </trkpt>
      <trkpt lat="42.45697" lon="0.03037">
        <ele>942.2</ele>
        <time>2017-07-31T10:23:05Z</time>
      </trkpt>
      <trkpt lat="42.45698" lon="0.03042">
        <ele>941.4</ele>
        <time>2017-07-31T10:23:06Z</time>
      </trkpt>
      <trkpt lat="42.45698" lon="0.03048">
        <ele>940.6</ele>
        <time>2017-07-31T10:23:07Z</time>
      </trkpt>
      <trkpt lat="42.45697" lon="0.03053">
        <ele>939.9</ele>
        <time>2017-07-31T10:23:08Z</time>
      </trkpt>
      <trkpt lat="42.45697" lon="0.03059">
        <ele>939.4</ele>
        <time>2017-07-31T10:23:09Z</time>
      </trkpt>
      <trkpt lat="42.45695" lon="0.03064">
        <ele>938.9</ele>
        <time>2017-07-31T10:23:10Z</time>
      </trkpt>
      <trkpt lat="42.45693" lon="0.03069">
        <ele>938.4</ele>
        <time>2017-07-31T10:23:11Z</time>
      </trkpt>
      <trkpt lat="42.45691" lon="0.03074">
        <ele>937.9</ele>
        <time>2017-07-31T10:23:12Z</time>
      </trkpt>
      <trkpt lat="42.45688" lon="0.03079">
        <ele>937.5</ele>
        <time>2017-07-31T10:23:13Z</time>
      </trkpt>
      <trkpt lat="42.45685" lon="0.03082">
        <ele>937.2</ele>
        <time>2017-07-31T10:23:14Z</time>
      </trkpt>
      <trkpt lat="42.45681" lon="0.03084">
        <ele>936.9</ele>
        <time>2017-07-31T10:23:15Z</time>
      </trkpt>
      <trkpt lat="42.45678" lon="0.03084">
        <ele>936.6</ele>
        <time>2017-07-31T10:23:16Z</time>
      </trkpt>
      <trkpt lat="42.45675" lon="0.03084">
        <ele>936.4</ele>
        <time>2017-07-31T10:23:17Z</time>
      </trkpt>
      <trkpt lat="42.45671" lon="0.03078">
        <ele>935.9</ele>
        <time>2017-07-31T10:23:36Z</time>
      </trkpt>
      <trkpt lat="42.45667" lon="0.03077">
        <ele>935.6</ele>
        <time>2017-07-31T10:23:39Z</time>
      </trkpt>
      <trkpt lat="42.45663" lon="0.03078">
        <ele>935.2</ele>
        <time>2017-07-31T10:23:41Z</time>
      </trkpt>
      <trkpt lat="42.4566" lon="0.03081">
        <ele>934.9</ele>
        <time>2017-07-31T10:23:43Z</time>
      </trkpt>
      <trkpt lat="42.4566" lon="0.03086">
        <ele>934.7</ele>
        <time>2017-07-31T10:23:45Z</time>
      </trkpt>
      <trkpt lat="42.45661" lon="0.0309">
        <ele>934.4</ele>
        <time>2017-07-31T10:23:47Z</time>
      </trkpt>
      <trkpt lat="42.45663" lon="0.03095">
        <ele>934</ele>
        <time>2017-07-31T10:23:49Z</time>
      </trkpt>
      <trkpt lat="42.45667" lon="0.031">
        <ele>933.6</ele>
        <time>2017-07-31T10:23:51Z</time>
      </trkpt>
      <trkpt lat="42.4567" lon="0.03102">
        <ele>933.3</ele>
        <time>2017-07-31T10:23:52Z</time>
      </trkpt>
      <trkpt lat="42.45672" lon="0.03105">
        <ele>933</ele>
        <time>2017-07-31T10:23:53Z</time>
      </trkpt>
      <trkpt lat="42.45674" lon="0.03108">
        <ele>932.8</ele>
        <time>2017-07-31T10:23:54Z</time>
      </trkpt>
      <trkpt lat="42.45676" lon="0.03111">
        <ele>932.6</ele>
        <time>2017-07-31T10:23:55Z</time>
      </trkpt>
      <trkpt lat="42.45679" lon="0.03114">
        <ele>932.3</ele>
        <time>2017-07-31T10:23:56Z</time>
      </trkpt>
      <trkpt lat="42.45681" lon="0.03117">
        <ele>932</ele>
        <time>2017-07-31T10:23:57Z</time>
      </trkpt>
      <trkpt lat="42.45684" lon="0.03121">
        <ele>931.6</ele>
        <time>2017-07-31T10:23:58Z</time>
      </trkpt>
      <trkpt lat="42.45686" lon="0.03125">
        <ele>931.1</ele>
        <time>2017-07-31T10:23:59Z</time>
      </trkpt>
      <trkpt lat="42.45689" lon="0.0313">
        <ele>930.7</ele>
        <time>2017-07-31T10:24:00Z</time>
      </trkpt>
      <trkpt lat="42.45692" lon="0.03134">
        <ele>930.4</ele>
        <time>2017-07-31T10:24:01Z</time>
      </trkpt>
      <trkpt lat="42.45694" lon="0.03138">
        <ele>930</ele>
        <time>2017-07-31T10:24:02Z</time>
      </trkpt>
      <trkpt lat="42.45697" lon="0.03141">
        <ele>929.6</ele>
        <time>2017-07-31T10:24:03Z</time>
      </trkpt>
      <trkpt lat="42.457" lon="0.03144">
        <ele>929.2</ele>
        <time>2017-07-31T10:24:04Z</time>
      </trkpt>
      <trkpt lat="42.45703" lon="0.03146">
        <ele>928.8</ele>
        <time>2017-07-31T10:24:05Z</time>
      </trkpt>
      <trkpt lat="42.45706" lon="0.03149">
        <ele>928.3</ele>
        <time>2017-07-31T10:24:06Z</time>
      </trkpt>
      <trkpt lat="42.45708" lon="0.03153">
        <ele>927.8</ele>
        <time>2017-07-31T10:24:07Z</time>
      </trkpt>
      <trkpt lat="42.4571" lon="0.03157">
        <ele>927.2</ele>
        <time>2017-07-31T10:24:08Z</time>
      </trkpt>
      <trkpt lat="42.45712" lon="0.03161">
        <ele>926.7</ele>
        <time>2017-07-31T10:24:09Z</time>
      </trkpt>
      <trkpt lat="42.45714" lon="0.03166">
        <ele>926.2</ele>
        <time>2017-07-31T10:24:10Z</time>
      </trkpt>
      <trkpt lat="42.45715" lon="0.03169">
        <ele>925.7</ele>
        <time>2017-07-31T10:24:11Z</time>
      </trkpt>
      <trkpt lat="42.45716" lon="0.03173">
        <ele>925.2</ele>
        <time>2017-07-31T10:24:12Z</time>
      </trkpt>
      <trkpt lat="42.45718" lon="0.03177">
        <ele>924.7</ele>
        <time>2017-07-31T10:24:13Z</time>
      </trkpt>
      <trkpt lat="42.4572" lon="0.03181">
        <ele>924</ele>
        <time>2017-07-31T10:24:14Z</time>
      </trkpt>
      <trkpt lat="42.45723" lon="0.03185">
        <ele>923.4</ele>
        <time>2017-07-31T10:24:15Z</time>
      </trkpt>
      <trkpt lat="42.45725" lon="0.03189">
        <ele>922.8</ele>
        <time>2017-07-31T10:24:16Z</time>
      </trkpt>
      <trkpt lat="42.45728" lon="0.03193">
        <ele>922.3</ele>
        <time>2017-07-31T10:24:17Z</time>
      </trkpt>
      <trkpt lat="42.45729" lon="0.03197">
        <ele>921.9</ele>
        <time>2017-07-31T10:24:18Z</time>
      </trkpt>
      <trkpt lat="42.45731" lon="0.03201">
        <ele>921.4</ele>
        <time>2017-07-31T10:24:19Z</time>
      </trkpt>
      <trkpt lat="42.45732" lon="0.03206">
        <ele>920.9</ele>
        <time>2017-07-31T10:24:20Z</time>
      </trkpt>
      <trkpt lat="42.45733" lon="0.0321">
        <ele>920.6</ele>
        <time>2017-07-31T10:24:21Z</time>
      </trkpt>
      <trkpt lat="42.45734" lon="0.03215">
        <ele>920.3</ele>
        <time>2017-07-31T10:24:22Z</time>
      </trkpt>
      <trkpt lat="42.45736" lon="0.03219">
        <ele>920.1</ele>
        <time>2017-07-31T10:24:23Z</time>
      </trkpt>
      <trkpt lat="42.45738" lon="0.03222">
        <ele>919.9</ele>
        <time>2017-07-31T10:24:24Z</time>
      </trkpt>
      <trkpt lat="42.4574" lon="0.03225">
        <ele>919.7</ele>
        <time>2017-07-31T10:24:25Z</time>
      </trkpt>
      <trkpt lat="42.45744" lon="0.03227">
        <ele>919.4</ele>
        <time>2017-07-31T10:24:26Z</time>
      </trkpt>
      <trkpt lat="42.45749" lon="0.0323">
        <ele>918.9</ele>
        <time>2017-07-31T10:24:27Z</time>
      </trkpt>
      <trkpt lat="42.45754" lon="0.03235">
        <ele>918.4</ele>
        <time>2017-07-31T10:24:28Z</time>
      </trkpt>
      <trkpt lat="42.45758" lon="0.0324">
        <ele>917.7</ele>
        <time>2017-07-31T10:24:29Z</time>
      </trkpt>
      <trkpt lat="42.45763" lon="0.03246">
        <ele>917</ele>
        <time>2017-07-31T10:24:30Z</time>
      </trkpt>
      <trkpt lat="42.45767" lon="0.03252">
        <ele>916.2</ele>
        <time>2017-07-31T10:24:31Z</time>
      </trkpt>
      <trkpt lat="42.4577" lon="0.03258">
        <ele>915.4</ele>
        <time>2017-07-31T10:24:32Z</time>
      </trkpt>
      <trkpt lat="42.45774" lon="0.03263">
        <ele>914.7</ele>
        <time>2017-07-31T10:24:33Z</time>
      </trkpt>
      <trkpt lat="42.45777" lon="0.03268">
        <ele>913.9</ele>
        <time>2017-07-31T10:24:34Z</time>
      </trkpt>
      <trkpt lat="42.4578" lon="0.03273">
        <ele>913.1</ele>
        <time>2017-07-31T10:24:35Z</time>
      </trkpt>
      <trkpt lat="42.45782" lon="0.03276">
        <ele>912.6</ele>
        <time>2017-07-31T10:24:36Z</time>
      </trkpt>
      <trkpt lat="42.45785" lon="0.03279">
        <ele>912</ele>
        <time>2017-07-31T10:24:37Z</time>
      </trkpt>
      <trkpt lat="42.45789" lon="0.0328">
        <ele>911.6</ele>
        <time>2017-07-31T10:24:38Z</time>
      </trkpt>
      <trkpt lat="42.45792" lon="0.03281">
        <ele>911.2</ele>
        <time>2017-07-31T10:24:39Z</time>
      </trkpt>
      <trkpt lat="42.45795" lon="0.03286">
        <ele>910.6</ele>
        <time>2017-07-31T10:24:41Z</time>
      </trkpt>
      <trkpt lat="42.45797" lon="0.03289">
        <ele>910.2</ele>
        <time>2017-07-31T10:24:42Z</time>
      </trkpt>
      <trkpt lat="42.458" lon="0.03294">
        <ele>909.4</ele>
        <time>2017-07-31T10:24:44Z</time>
      </trkpt>
      <trkpt lat="42.45803" lon="0.03297">
        <ele>908.9</ele>
        <time>2017-07-31T10:24:45Z</time>
      </trkpt>
      <trkpt lat="42.45806" lon="0.03301">
        <ele>908.2</ele>
        <time>2017-07-31T10:24:46Z</time>
      </trkpt>
      <trkpt lat="42.45809" lon="0.03306">
        <ele>907.4</ele>
        <time>2017-07-31T10:24:47Z</time>
      </trkpt>
      <trkpt lat="42.45812" lon="0.0331">
        <ele>906.5</ele>
        <time>2017-07-31T10:24:48Z</time>
      </trkpt>
      <trkpt lat="42.45814" lon="0.03314">
        <ele>905.6</ele>
        <time>2017-07-31T10:24:49Z</time>
      </trkpt>
      <trkpt lat="42.45817" lon="0.03318">
        <ele>904.9</ele>
        <time>2017-07-31T10:24:50Z</time>
      </trkpt>
      <trkpt lat="42.4582" lon="0.03322">
        <ele>904.2</ele>
        <time>2017-07-31T10:24:51Z</time>
      </trkpt>
      <trkpt lat="42.45823" lon="0.03326">
        <ele>903.5</ele>
        <time>2017-07-31T10:24:52Z</time>
      </trkpt>
      <trkpt lat="42.45825" lon="0.03329">
        <ele>902.8</ele>
        <time>2017-07-31T10:24:53Z</time>
      </trkpt>
      <trkpt lat="42.45828" lon="0.03334">
        <ele>902.1</ele>
        <time>2017-07-31T10:24:55Z</time>
      </trkpt>
      <trkpt lat="42.45829" lon="0.03338">
        <ele>901.5</ele>
        <time>2017-07-31T10:24:57Z</time>
      </trkpt>
      <trkpt lat="42.45834" lon="0.03341">
        <ele>900.7</ele>
        <time>2017-07-31T10:24:59Z</time>
      </trkpt>
      <trkpt lat="42.45837" lon="0.03344">
        <ele>900.1</ele>
        <time>2017-07-31T10:25:01Z</time>
      </trkpt>
      <trkpt lat="42.4584" lon="0.03349">
        <ele>899.3</ele>
        <time>2017-07-31T10:25:03Z</time>
      </trkpt>
      <trkpt lat="42.45844" lon="0.03352">
        <ele>898.5</ele>
        <time>2017-07-31T10:25:05Z</time>
      </trkpt>
      <trkpt lat="42.45846" lon="0.03354">
        <ele>897.8</ele>
        <time>2017-07-31T10:25:06Z</time>
      </trkpt>
      <trkpt lat="42.4585" lon="0.03356">
        <ele>897.1</ele>
        <time>2017-07-31T10:25:07Z</time>
      </trkpt>
      <trkpt lat="42.45854" lon="0.03358">
        <ele>896.3</ele>
        <time>2017-07-31T10:25:08Z</time>
      </trkpt>
      <trkpt lat="42.45857" lon="0.0336">
        <ele>895.6</ele>
        <time>2017-07-31T10:25:09Z</time>
      </trkpt>
      <trkpt lat="42.4586" lon="0.03362">
        <ele>895</ele>
        <time>2017-07-31T10:25:10Z</time>
      </trkpt>
      <trkpt lat="42.45864" lon="0.03364">
        <ele>894.2</ele>
        <time>2017-07-31T10:25:12Z</time>
      </trkpt>
      <trkpt lat="42.45867" lon="0.03367">
        <ele>893.7</ele>
        <time>2017-07-31T10:25:14Z</time>
      </trkpt>
      <trkpt lat="42.45869" lon="0.03374">
        <ele>892.8</ele>
        <time>2017-07-31T10:25:16Z</time>
      </trkpt>
      <trkpt lat="42.4587" lon="0.03378">
        <ele>892.4</ele>
        <time>2017-07-31T10:25:17Z</time>
      </trkpt>
      <trkpt lat="42.45872" lon="0.03381">
        <ele>892.1</ele>
        <time>2017-07-31T10:25:18Z</time>
      </trkpt>
      <trkpt lat="42.45875" lon="0.03383">
        <ele>891.8</ele>
        <time>2017-07-31T10:25:19Z</time>
      </trkpt>
      <trkpt lat="42.45878" lon="0.03384">
        <ele>891.5</ele>
        <time>2017-07-31T10:25:20Z</time>
      </trkpt>
      <trkpt lat="42.45881" lon="0.03385">
        <ele>891.3</ele>
        <time>2017-07-31T10:25:21Z</time>
      </trkpt>
      <trkpt lat="42.45883" lon="0.03387">
        <ele>890.9</ele>
        <time>2017-07-31T10:25:22Z</time>
      </trkpt>
      <trkpt lat="42.45886" lon="0.0339">
        <ele>890.5</ele>
        <time>2017-07-31T10:25:23Z</time>
      </trkpt>
      <trkpt lat="42.45889" lon="0.03393">
        <ele>890</ele>
        <time>2017-07-31T10:25:24Z</time>
      </trkpt>
      <trkpt lat="42.45892" lon="0.03395">
        <ele>889.5</ele>
        <time>2017-07-31T10:25:25Z</time>
      </trkpt>
      <trkpt lat="42.45896" lon="0.03397">
        <ele>889</ele>
        <time>2017-07-31T10:25:26Z</time>
      </trkpt>
      <trkpt lat="42.45899" lon="0.03399">
        <ele>888.5</ele>
        <time>2017-07-31T10:25:27Z</time>
      </trkpt>
      <trkpt lat="42.45902" lon="0.03401">
        <ele>888</ele>
        <time>2017-07-31T10:25:28Z</time>
      </trkpt>
      <trkpt lat="42.45906" lon="0.03404">
        <ele>887.5</ele>
        <time>2017-07-31T10:25:29Z</time>
      </trkpt>
      <trkpt lat="42.45908" lon="0.03407">
        <ele>887</ele>
        <time>2017-07-31T10:25:30Z</time>
      </trkpt>
      <trkpt lat="42.45911" lon="0.0341">
        <ele>886.4</ele>
        <time>2017-07-31T10:25:31Z</time>
      </trkpt>
      <trkpt lat="42.45914" lon="0.03412">
        <ele>885.8</ele>
        <time>2017-07-31T10:25:32Z</time>
      </trkpt>
      <trkpt lat="42.45917" lon="0.03414">
        <ele>885.2</ele>
        <time>2017-07-31T10:25:33Z</time>
      </trkpt>
      <trkpt lat="42.4592" lon="0.03416">
        <ele>884.7</ele>
        <time>2017-07-31T10:25:34Z</time>
      </trkpt>
      <trkpt lat="42.45924" lon="0.03419">
        <ele>884.1</ele>
        <time>2017-07-31T10:25:36Z</time>
      </trkpt>
      <trkpt lat="42.45927" lon="0.03425">
        <ele>883.5</ele>
        <time>2017-07-31T10:25:38Z</time>
      </trkpt>
      <trkpt lat="42.45929" lon="0.0343">
        <ele>882.9</ele>
        <time>2017-07-31T10:25:39Z</time>
      </trkpt>
      <trkpt lat="42.45932" lon="0.03436">
        <ele>882.2</ele>
        <time>2017-07-31T10:25:40Z</time>
      </trkpt>
      <trkpt lat="42.45935" lon="0.03441">
        <ele>881.5</ele>
        <time>2017-07-31T10:25:41Z</time>
      </trkpt>
      <trkpt lat="42.45937" lon="0.03446">
        <ele>881</ele>
        <time>2017-07-31T10:25:42Z</time>
      </trkpt>
      <trkpt lat="42.45939" lon="0.03449">
        <ele>880.6</ele>
        <time>2017-07-31T10:25:43Z</time>
      </trkpt>
      <trkpt lat="42.45942" lon="0.03451">
        <ele>880.4</ele>
        <time>2017-07-31T10:25:44Z</time>
      </trkpt>
      <trkpt lat="42.45947" lon="0.03452">
        <ele>879.8</ele>
        <time>2017-07-31T10:25:46Z</time>
      </trkpt>
      <trkpt lat="42.4595" lon="0.03453">
        <ele>879.5</ele>
        <time>2017-07-31T10:25:47Z</time>
      </trkpt>
      <trkpt lat="42.45953" lon="0.03455">
        <ele>879.2</ele>
        <time>2017-07-31T10:25:48Z</time>
      </trkpt>
      <trkpt lat="42.45956" lon="0.03459">
        <ele>878.8</ele>
        <time>2017-07-31T10:25:49Z</time>
      </trkpt>
      <trkpt lat="42.45958" lon="0.03462">
        <ele>878.4</ele>
        <time>2017-07-31T10:25:50Z</time>
      </trkpt>
      <trkpt lat="42.45961" lon="0.03465">
        <ele>878</ele>
        <time>2017-07-31T10:25:51Z</time>
      </trkpt>
      <trkpt lat="42.45965" lon="0.03467">
        <ele>877.4</ele>
        <time>2017-07-31T10:25:52Z</time>
      </trkpt>
      <trkpt lat="42.45969" lon="0.03469">
        <ele>876.8</ele>
        <time>2017-07-31T10:25:53Z</time>
      </trkpt>
      <trkpt lat="42.45974" lon="0.03471">
        <ele>876.3</ele>
        <time>2017-07-31T10:25:54Z</time>
      </trkpt>
      <trkpt lat="42.45977" lon="0.03471">
        <ele>875.9</ele>
        <time>2017-07-31T10:25:55Z</time>
      </trkpt>
      <trkpt lat="42.45981" lon="0.03472">
        <ele>874.2</ele>
        <time>2017-07-31T10:25:57Z</time>
      </trkpt>
      <trkpt lat="42.45983" lon="0.03472">
        <ele>872.7</ele>
        <time>2017-07-31T10:25:59Z</time>
      </trkpt>
      <trkpt lat="42.45986" lon="0.03467">
        <ele>871.8</ele>
        <time>2017-07-31T10:26:01Z</time>
      </trkpt>
      <trkpt lat="42.45987" lon="0.03463">
        <ele>871.3</ele>
        <time>2017-07-31T10:26:02Z</time>
      </trkpt>
      <trkpt lat="42.45987" lon="0.03459">
        <ele>870.7</ele>
        <time>2017-07-31T10:26:03Z</time>
      </trkpt>
      <trkpt lat="42.45986" lon="0.03452">
        <ele>868.7</ele>
        <time>2017-07-31T10:26:05Z</time>
      </trkpt>
      <trkpt lat="42.45986" lon="0.03446">
        <ele>868</ele>
        <time>2017-07-31T10:26:07Z</time>
      </trkpt>
      <trkpt lat="42.45986" lon="0.03441">
        <ele>867.3</ele>
        <time>2017-07-31T10:26:09Z</time>
      </trkpt>
      <trkpt lat="42.45987" lon="0.03435">
        <ele>865.9</ele>
        <time>2017-07-31T10:26:11Z</time>
      </trkpt>
      <trkpt lat="42.4599" lon="0.03433">
        <ele>864.4</ele>
        <time>2017-07-31T10:26:13Z</time>
      </trkpt>
      <trkpt lat="42.45994" lon="0.03433">
        <ele>862.6</ele>
        <time>2017-07-31T10:26:15Z</time>
      </trkpt>
      <trkpt lat="42.45997" lon="0.03432">
        <ele>862.3</ele>
        <time>2017-07-31T10:26:17Z</time>
      </trkpt>
      <trkpt lat="42.45998" lon="0.03428">
        <ele>862.1</ele>
        <time>2017-07-31T10:26:19Z</time>
      </trkpt>
      <trkpt lat="42.45998" lon="0.03423">
        <ele>861.8</ele>
        <time>2017-07-31T10:26:21Z</time>
      </trkpt>
      <trkpt lat="42.45998" lon="0.03419">
        <ele>861.4</ele>
        <time>2017-07-31T10:26:23Z</time>
      </trkpt>
      <trkpt lat="42.45997" lon="0.03414">
        <ele>861</ele>
        <time>2017-07-31T10:26:24Z</time>
      </trkpt>
      <trkpt lat="42.45997" lon="0.0341">
        <ele>860.5</ele>
        <time>2017-07-31T10:26:25Z</time>
      </trkpt>
      <trkpt lat="42.45996" lon="0.03405">
        <ele>859.8</ele>
        <time>2017-07-31T10:26:26Z</time>
      </trkpt>
      <trkpt lat="42.45995" lon="0.03401">
        <ele>859.2</ele>
        <time>2017-07-31T10:26:27Z</time>
      </trkpt>
      <trkpt lat="42.45993" lon="0.03397">
        <ele>858.7</ele>
        <time>2017-07-31T10:26:28Z</time>
      </trkpt>
      <trkpt lat="42.45991" lon="0.03393">
        <ele>858</ele>
        <time>2017-07-31T10:26:29Z</time>
      </trkpt>
      <trkpt lat="42.4599" lon="0.03388">
        <ele>857.4</ele>
        <time>2017-07-31T10:26:30Z</time>
      </trkpt>
      <trkpt lat="42.45989" lon="0.03384">
        <ele>856.8</ele>
        <time>2017-07-31T10:26:31Z</time>
      </trkpt>
      <trkpt lat="42.45987" lon="0.03379">
        <ele>856.1</ele>
        <time>2017-07-31T10:26:32Z</time>
      </trkpt>
      <trkpt lat="42.45987" lon="0.03374">
        <ele>855.3</ele>
        <time>2017-07-31T10:26:33Z</time>
      </trkpt>
      <trkpt lat="42.45986" lon="0.0337">
        <ele>854.6</ele>
        <time>2017-07-31T10:26:34Z</time>
      </trkpt>
      <trkpt lat="42.45985" lon="0.03366">
        <ele>853.6</ele>
        <time>2017-07-31T10:26:35Z</time>
      </trkpt>
      <trkpt lat="42.45984" lon="0.03361">
        <ele>852.6</ele>
        <time>2017-07-31T10:26:36Z</time>
      </trkpt>
      <trkpt lat="42.45982" lon="0.03357">
        <ele>851.7</ele>
        <time>2017-07-31T10:26:37Z</time>
      </trkpt>
      <trkpt lat="42.45981" lon="0.03354">
        <ele>851</ele>
        <time>2017-07-31T10:26:38Z</time>
      </trkpt>
      <trkpt lat="42.45979" lon="0.03346">
        <ele>849.9</ele>
        <time>2017-07-31T10:26:40Z</time>
      </trkpt>
      <trkpt lat="42.45977" lon="0.03341">
        <ele>849</ele>
        <time>2017-07-31T10:26:42Z</time>
      </trkpt>
      <trkpt lat="42.45976" lon="0.03336">
        <ele>848.4</ele>
        <time>2017-07-31T10:26:44Z</time>
      </trkpt>
      <trkpt lat="42.45975" lon="0.03331">
        <ele>847.9</ele>
        <time>2017-07-31T10:26:46Z</time>
      </trkpt>
      <trkpt lat="42.45974" lon="0.03328">
        <ele>847.5</ele>
        <time>2017-07-31T10:26:47Z</time>
      </trkpt>
      <trkpt lat="42.45973" lon="0.03324">
        <ele>847.2</ele>
        <time>2017-07-31T10:26:48Z</time>
      </trkpt>
      <trkpt lat="42.45973" lon="0.03319">
        <ele>846.9</ele>
        <time>2017-07-31T10:26:49Z</time>
      </trkpt>
      <trkpt lat="42.45971" lon="0.03315">
        <ele>846.7</ele>
        <time>2017-07-31T10:26:50Z</time>
      </trkpt>
      <trkpt lat="42.4597" lon="0.0331">
        <ele>846.2</ele>
        <time>2017-07-31T10:26:51Z</time>
      </trkpt>
      <trkpt lat="42.45968" lon="0.03306">
        <ele>845.8</ele>
        <time>2017-07-31T10:26:52Z</time>
      </trkpt>
      <trkpt lat="42.45967" lon="0.03301">
        <ele>845.4</ele>
        <time>2017-07-31T10:26:53Z</time>
      </trkpt>
      <trkpt lat="42.45965" lon="0.03297">
        <ele>844.9</ele>
        <time>2017-07-31T10:26:54Z</time>
      </trkpt>
      <trkpt lat="42.45963" lon="0.03293">
        <ele>842.8</ele>
        <time>2017-07-31T10:26:55Z</time>
      </trkpt>
      <trkpt lat="42.45962" lon="0.03289">
        <ele>841.2</ele>
        <time>2017-07-31T10:26:56Z</time>
      </trkpt>
      <trkpt lat="42.45961" lon="0.03286">
        <ele>840.8</ele>
        <time>2017-07-31T10:26:57Z</time>
      </trkpt>
      <trkpt lat="42.4596" lon="0.0328">
        <ele>840.2</ele>
        <time>2017-07-31T10:26:59Z</time>
      </trkpt>
      <trkpt lat="42.45959" lon="0.03277">
        <ele>839.8</ele>
        <time>2017-07-31T10:27:01Z</time>
      </trkpt>
      <trkpt lat="42.45957" lon="0.03273">
        <ele>838.8</ele>
        <time>2017-07-31T10:27:04Z</time>
      </trkpt>
      <trkpt lat="42.45952" lon="0.03263">
        <ele>837.4</ele>
        <time>2017-07-31T10:27:36Z</time>
      </trkpt>
      <trkpt lat="42.45951" lon="0.03259">
        <ele>836.9</ele>
        <time>2017-07-31T10:27:40Z</time>
      </trkpt>
      <trkpt lat="42.45951" lon="0.03254">
        <ele>836.3</ele>
        <time>2017-07-31T10:27:42Z</time>
      </trkpt>
      <trkpt lat="42.45951" lon="0.03249">
        <ele>835.7</ele>
        <time>2017-07-31T10:27:44Z</time>
      </trkpt>
      <trkpt lat="42.45951" lon="0.03244">
        <ele>835.1</ele>
        <time>2017-07-31T10:27:46Z</time>
      </trkpt>
      <trkpt lat="42.45952" lon="0.03238">
        <ele>834.4</ele>
        <time>2017-07-31T10:27:48Z</time>
      </trkpt>
      <trkpt lat="42.45951" lon="0.03234">
        <ele>833.9</ele>
        <time>2017-07-31T10:27:49Z</time>
      </trkpt>
      <trkpt lat="42.45951" lon="0.03231">
        <ele>833.2</ele>
        <time>2017-07-31T10:27:50Z</time>
      </trkpt>
      <trkpt lat="42.4595" lon="0.03227">
        <ele>832.8</ele>
        <time>2017-07-31T10:27:51Z</time>
      </trkpt>
      <trkpt lat="42.45949" lon="0.03224">
        <ele>832.5</ele>
        <time>2017-07-31T10:27:52Z</time>
      </trkpt>
      <trkpt lat="42.45948" lon="0.0322">
        <ele>832.3</ele>
        <time>2017-07-31T10:27:53Z</time>
      </trkpt>
      <trkpt lat="42.45946" lon="0.03214">
        <ele>831.2</ele>
        <time>2017-07-31T10:27:55Z</time>
      </trkpt>
      <trkpt lat="42.45944" lon="0.03209">
        <ele>830.8</ele>
        <time>2017-07-31T10:27:57Z</time>
      </trkpt>
      <trkpt lat="42.45944" lon="0.03204">
        <ele>830.4</ele>
        <time>2017-07-31T10:27:59Z</time>
      </trkpt>
      <trkpt lat="42.45944" lon="0.032">
        <ele>830.1</ele>
        <time>2017-07-31T10:28:00Z</time>
      </trkpt>
      <trkpt lat="42.45944" lon="0.03195">
        <ele>829.7</ele>
        <time>2017-07-31T10:28:01Z</time>
      </trkpt>
      <trkpt lat="42.45944" lon="0.03189">
        <ele>829.2</ele>
        <time>2017-07-31T10:28:02Z</time>
      </trkpt>
      <trkpt lat="42.45943" lon="0.03184">
        <ele>828.5</ele>
        <time>2017-07-31T10:28:03Z</time>
      </trkpt>
      <trkpt lat="42.45942" lon="0.03179">
        <ele>827.6</ele>
        <time>2017-07-31T10:28:04Z</time>
      </trkpt>
      <trkpt lat="42.45941" lon="0.03174">
        <ele>826.8</ele>
        <time>2017-07-31T10:28:05Z</time>
      </trkpt>
      <trkpt lat="42.4594" lon="0.0317">
        <ele>826.3</ele>
        <time>2017-07-31T10:28:06Z</time>
      </trkpt>
      <trkpt lat="42.45939" lon="0.03165">
        <ele>825.8</ele>
        <time>2017-07-31T10:28:07Z</time>
      </trkpt>
      <trkpt lat="42.45938" lon="0.03161">
        <ele>825.3</ele>
        <time>2017-07-31T10:28:08Z</time>
      </trkpt>
      <trkpt lat="42.45937" lon="0.03157">
        <ele>824.8</ele>
        <time>2017-07-31T10:28:09Z</time>
      </trkpt>
      <trkpt lat="42.45936" lon="0.03151">
        <ele>824.1</ele>
        <time>2017-07-31T10:28:11Z</time>
      </trkpt>
      <trkpt lat="42.45936" lon="0.03145">
        <ele>823.4</ele>
        <time>2017-07-31T10:28:13Z</time>
      </trkpt>
      <trkpt lat="42.45936" lon="0.03139">
        <ele>822.5</ele>
        <time>2017-07-31T10:28:15Z</time>
      </trkpt>
      <trkpt lat="42.45936" lon="0.03132">
        <ele>821.7</ele>
        <time>2017-07-31T10:28:17Z</time>
      </trkpt>
      <trkpt lat="42.45936" lon="0.03128">
        <ele>821.1</ele>
        <time>2017-07-31T10:28:18Z</time>
      </trkpt>
      <trkpt lat="42.45935" lon="0.03123">
        <ele>820.4</ele>
        <time>2017-07-31T10:28:19Z</time>
      </trkpt>
      <trkpt lat="42.45934" lon="0.03118">
        <ele>819.6</ele>
        <time>2017-07-31T10:28:20Z</time>
      </trkpt>
      <trkpt lat="42.45932" lon="0.03112">
        <ele>818.6</ele>
        <time>2017-07-31T10:28:21Z</time>
      </trkpt>
      <trkpt lat="42.4593" lon="0.03106">
        <ele>817.9</ele>
        <time>2017-07-31T10:28:22Z</time>
      </trkpt>
      <trkpt lat="42.45928" lon="0.03101">
        <ele>817.5</ele>
        <time>2017-07-31T10:28:23Z</time>
      </trkpt>
      <trkpt lat="42.45926" lon="0.03096">
        <ele>816.9</ele>
        <time>2017-07-31T10:28:24Z</time>
      </trkpt>
      <trkpt lat="42.45925" lon="0.0309">
        <ele>816</ele>
        <time>2017-07-31T10:28:25Z</time>
      </trkpt>
      <trkpt lat="42.45924" lon="0.03085">
        <ele>815.2</ele>
        <time>2017-07-31T10:28:26Z</time>
      </trkpt>
      <trkpt lat="42.45924" lon="0.0308">
        <ele>814.4</ele>
        <time>2017-07-31T10:28:27Z</time>
      </trkpt>
      <trkpt lat="42.45923" lon="0.03075">
        <ele>813.7</ele>
        <time>2017-07-31T10:28:28Z</time>
      </trkpt>
      <trkpt lat="42.45923" lon="0.03069">
        <ele>812.6</ele>
        <time>2017-07-31T10:28:30Z</time>
      </trkpt>
      <trkpt lat="42.45923" lon="0.03064">
        <ele>811.9</ele>
        <time>2017-07-31T10:28:32Z</time>
      </trkpt>
      <trkpt lat="42.45926" lon="0.03063">
        <ele>811.2</ele>
        <time>2017-07-31T10:28:38Z</time>
      </trkpt>
      <trkpt lat="42.4593" lon="0.03063">
        <ele>810.4</ele>
        <time>2017-07-31T10:28:40Z</time>
      </trkpt>
      <trkpt lat="42.45933" lon="0.03064">
        <ele>809.7</ele>
        <time>2017-07-31T10:28:42Z</time>
      </trkpt>
      <trkpt lat="42.45935" lon="0.03067">
        <ele>809.1</ele>
        <time>2017-07-31T10:28:44Z</time>
      </trkpt>
      <trkpt lat="42.45939" lon="0.03072">
        <ele>808.2</ele>
        <time>2017-07-31T10:28:46Z</time>
      </trkpt>
      <trkpt lat="42.45941" lon="0.03075">
        <ele>807.6</ele>
        <time>2017-07-31T10:28:47Z</time>
      </trkpt>
      <trkpt lat="42.45944" lon="0.03079">
        <ele>807</ele>
        <time>2017-07-31T10:28:48Z</time>
      </trkpt>
      <trkpt lat="42.45947" lon="0.03083">
        <ele>806.2</ele>
        <time>2017-07-31T10:28:49Z</time>
      </trkpt>
      <trkpt lat="42.45949" lon="0.03087">
        <ele>805.6</ele>
        <time>2017-07-31T10:28:50Z</time>
      </trkpt>
      <trkpt lat="42.45952" lon="0.03091">
        <ele>805.1</ele>
        <time>2017-07-31T10:28:51Z</time>
      </trkpt>
      <trkpt lat="42.45954" lon="0.03094">
        <ele>804.6</ele>
        <time>2017-07-31T10:28:52Z</time>
      </trkpt>
      <trkpt lat="42.45956" lon="0.03097">
        <ele>804.1</ele>
        <time>2017-07-31T10:28:53Z</time>
      </trkpt>
      <trkpt lat="42.45958" lon="0.031">
        <ele>803.8</ele>
        <time>2017-07-31T10:28:54Z</time>
      </trkpt>
      <trkpt lat="42.4596" lon="0.03103">
        <ele>803.4</ele>
        <time>2017-07-31T10:28:55Z</time>
      </trkpt>
      <trkpt lat="42.45963" lon="0.03106">
        <ele>803.1</ele>
        <time>2017-07-31T10:28:56Z</time>
      </trkpt>
      <trkpt lat="42.45966" lon="0.03111">
        <ele>802.7</ele>
        <time>2017-07-31T10:28:58Z</time>
      </trkpt>
      <trkpt lat="42.4597" lon="0.03116">
        <ele>802.1</ele>
        <time>2017-07-31T10:29:00Z</time>
      </trkpt>
      <trkpt lat="42.45973" lon="0.0312">
        <ele>801.6</ele>
        <time>2017-07-31T10:29:01Z</time>
      </trkpt>
      <trkpt lat="42.45975" lon="0.03125">
        <ele>801</ele>
        <time>2017-07-31T10:29:02Z</time>
      </trkpt>
      <trkpt lat="42.45978" lon="0.0313">
        <ele>800.3</ele>
        <time>2017-07-31T10:29:03Z</time>
      </trkpt>
      <trkpt lat="42.45981" lon="0.03135">
        <ele>799.5</ele>
        <time>2017-07-31T10:29:04Z</time>
      </trkpt>
      <trkpt lat="42.45983" lon="0.0314">
        <ele>798.7</ele>
        <time>2017-07-31T10:29:05Z</time>
      </trkpt>
      <trkpt lat="42.45985" lon="0.03144">
        <ele>797.9</ele>
        <time>2017-07-31T10:29:06Z</time>
      </trkpt>
      <trkpt lat="42.45987" lon="0.03148">
        <ele>797.3</ele>
        <time>2017-07-31T10:29:07Z</time>
      </trkpt>
      <trkpt lat="42.45989" lon="0.03151">
        <ele>796.7</ele>
        <time>2017-07-31T10:29:08Z</time>
      </trkpt>
      <trkpt lat="42.45991" lon="0.03154">
        <ele>796.2</ele>
        <time>2017-07-31T10:29:09Z</time>
      </trkpt>
      <trkpt lat="42.45993" lon="0.03157">
        <ele>795.7</ele>
        <time>2017-07-31T10:29:10Z</time>
      </trkpt>
      <trkpt lat="42.45996" lon="0.0316">
        <ele>795.1</ele>
        <time>2017-07-31T10:29:11Z</time>
      </trkpt>
      <trkpt lat="42.45998" lon="0.03163">
        <ele>794.6</ele>
        <time>2017-07-31T10:29:12Z</time>
      </trkpt>
      <trkpt lat="42.46001" lon="0.03167">
        <ele>794.1</ele>
        <time>2017-07-31T10:29:13Z</time>
      </trkpt>
      <trkpt lat="42.46003" lon="0.03171">
        <ele>793.5</ele>
        <time>2017-07-31T10:29:14Z</time>
      </trkpt>
      <trkpt lat="42.46006" lon="0.03176">
        <ele>792.8</ele>
        <time>2017-07-31T10:29:15Z</time>
      </trkpt>
      <trkpt lat="42.46008" lon="0.03181">
        <ele>792.3</ele>
        <time>2017-07-31T10:29:16Z</time>
      </trkpt>
      <trkpt lat="42.4601" lon="0.03185">
        <ele>791.9</ele>
        <time>2017-07-31T10:29:17Z</time>
      </trkpt>
      <trkpt lat="42.46012" lon="0.0319">
        <ele>791.7</ele>
        <time>2017-07-31T10:29:18Z</time>
      </trkpt>
      <trkpt lat="42.46014" lon="0.03194">
        <ele>791.4</ele>
        <time>2017-07-31T10:29:19Z</time>
      </trkpt>
      <trkpt lat="42.46016" lon="0.03198">
        <ele>791</ele>
        <time>2017-07-31T10:29:20Z</time>
      </trkpt>
      <trkpt lat="42.46018" lon="0.03202">
        <ele>790.6</ele>
        <time>2017-07-31T10:29:21Z</time>
      </trkpt>
      <trkpt lat="42.46021" lon="0.03206">
        <ele>790.1</ele>
        <time>2017-07-31T10:29:22Z</time>
      </trkpt>
      <trkpt lat="42.46023" lon="0.0321">
        <ele>789.7</ele>
        <time>2017-07-31T10:29:23Z</time>
      </trkpt>
      <trkpt lat="42.46026" lon="0.03215">
        <ele>789.1</ele>
        <time>2017-07-31T10:29:24Z</time>
      </trkpt>
      <trkpt lat="42.46029" lon="0.03219">
        <ele>788.5</ele>
        <time>2017-07-31T10:29:25Z</time>
      </trkpt>
      <trkpt lat="42.46031" lon="0.03223">
        <ele>788.1</ele>
        <time>2017-07-31T10:29:26Z</time>
      </trkpt>
      <trkpt lat="42.46033" lon="0.03226">
        <ele>787.7</ele>
        <time>2017-07-31T10:29:27Z</time>
      </trkpt>
      <trkpt lat="42.46035" lon="0.0323">
        <ele>787.4</ele>
        <time>2017-07-31T10:29:28Z</time>
      </trkpt>
      <trkpt lat="42.46039" lon="0.03234">
        <ele>787</ele>
        <time>2017-07-31T10:29:29Z</time>
      </trkpt>
      <trkpt lat="42.46042" lon="0.03238">
        <ele>786.5</ele>
        <time>2017-07-31T10:29:30Z</time>
      </trkpt>
      <trkpt lat="42.46045" lon="0.03242">
        <ele>786.1</ele>
        <time>2017-07-31T10:29:31Z</time>
      </trkpt>
      <trkpt lat="42.46048" lon="0.03246">
        <ele>785.6</ele>
        <time>2017-07-31T10:29:32Z</time>
      </trkpt>
      <trkpt lat="42.4605" lon="0.03249">
        <ele>785.4</ele>
        <time>2017-07-31T10:29:33Z</time>
      </trkpt>
      <trkpt lat="42.46052" lon="0.03251">
        <ele>785.2</ele>
        <time>2017-07-31T10:29:34Z</time>
      </trkpt>
      <trkpt lat="42.46055" lon="0.03253">
        <ele>785</ele>
        <time>2017-07-31T10:29:35Z</time>
      </trkpt>
      <trkpt lat="42.46058" lon="0.03254">
        <ele>784.6</ele>
        <time>2017-07-31T10:29:36Z</time>
      </trkpt>
      <trkpt lat="42.46062" lon="0.03256">
        <ele>784.2</ele>
        <time>2017-07-31T10:29:37Z</time>
      </trkpt>
      <trkpt lat="42.46065" lon="0.03258">
        <ele>783.7</ele>
        <time>2017-07-31T10:29:38Z</time>
      </trkpt>
      <trkpt lat="42.46069" lon="0.03261">
        <ele>783.4</ele>
        <time>2017-07-31T10:29:39Z</time>
      </trkpt>
      <trkpt lat="42.46072" lon="0.03263">
        <ele>783</ele>
        <time>2017-07-31T10:29:40Z</time>
      </trkpt>
      <trkpt lat="42.46075" lon="0.03264">
        <ele>782.7</ele>
        <time>2017-07-31T10:29:41Z</time>
      </trkpt>
      <trkpt lat="42.46078" lon="0.03266">
        <ele>782.3</ele>
        <time>2017-07-31T10:29:42Z</time>
      </trkpt>
      <trkpt lat="42.46081" lon="0.03268">
        <ele>782</ele>
        <time>2017-07-31T10:29:43Z</time>
      </trkpt>
      <trkpt lat="42.46085" lon="0.0327">
        <ele>781.6</ele>
        <time>2017-07-31T10:29:44Z</time>
      </trkpt>
      <trkpt lat="42.46088" lon="0.03272">
        <ele>781.4</ele>
        <time>2017-07-31T10:29:45Z</time>
      </trkpt>
      <trkpt lat="42.46093" lon="0.03274">
        <ele>781.1</ele>
        <time>2017-07-31T10:29:46Z</time>
      </trkpt>
      <trkpt lat="42.46097" lon="0.03275">
        <ele>780.8</ele>
        <time>2017-07-31T10:29:47Z</time>
      </trkpt>
      <trkpt lat="42.46101" lon="0.03277">
        <ele>780.4</ele>
        <time>2017-07-31T10:29:48Z</time>
      </trkpt>
      <trkpt lat="42.46104" lon="0.03279">
        <ele>780</ele>
        <time>2017-07-31T10:29:49Z</time>
      </trkpt>
      <trkpt lat="42.46108" lon="0.03282">
        <ele>779.8</ele>
        <time>2017-07-31T10:29:50Z</time>
      </trkpt>
      <trkpt lat="42.46112" lon="0.03284">
        <ele>779.6</ele>
        <time>2017-07-31T10:29:51Z</time>
      </trkpt>
      <trkpt lat="42.46116" lon="0.03286">
        <ele>779.4</ele>
        <time>2017-07-31T10:29:52Z</time>
      </trkpt>
      <trkpt lat="42.46119" lon="0.03287">
        <ele>779.2</ele>
        <time>2017-07-31T10:29:53Z</time>
      </trkpt>
      <trkpt lat="42.46123" lon="0.03288">
        <ele>779</ele>
        <time>2017-07-31T10:29:54Z</time>
      </trkpt>
      <trkpt lat="42.46126" lon="0.03289">
        <ele>778.8</ele>
        <time>2017-07-31T10:29:55Z</time>
      </trkpt>
      <trkpt lat="42.46129" lon="0.03292">
        <ele>778.5</ele>
        <time>2017-07-31T10:29:56Z</time>
      </trkpt>
      <trkpt lat="42.46131" lon="0.03294">
        <ele>778.3</ele>
        <time>2017-07-31T10:29:57Z</time>
      </trkpt>
      <trkpt lat="42.46134" lon="0.03298">
        <ele>778</ele>
        <time>2017-07-31T10:29:59Z</time>
      </trkpt>
      <trkpt lat="42.46135" lon="0.03301">
        <ele>777.8</ele>
        <time>2017-07-31T10:31:48Z</time>
      </trkpt>
      <trkpt lat="42.46136" lon="0.03306">
        <ele>777.6</ele>
        <time>2017-07-31T10:31:50Z</time>
      </trkpt>
      <trkpt lat="42.46138" lon="0.0331">
        <ele>777.4</ele>
        <time>2017-07-31T10:31:52Z</time>
      </trkpt>
      <trkpt lat="42.46139" lon="0.03314">
        <ele>777.1</ele>
        <time>2017-07-31T10:31:54Z</time>
      </trkpt>
      <trkpt lat="42.4614" lon="0.03321">
        <ele>776.7</ele>
        <time>2017-07-31T10:31:56Z</time>
      </trkpt>
      <trkpt lat="42.46141" lon="0.03327">
        <ele>775.9</ele>
        <time>2017-07-31T10:31:58Z</time>
      </trkpt>
      <trkpt lat="42.46142" lon="0.03333">
        <ele>775.2</ele>
        <time>2017-07-31T10:32:00Z</time>
      </trkpt>
      <trkpt lat="42.46142" lon="0.03337">
        <ele>774.8</ele>
        <time>2017-07-31T10:32:01Z</time>
      </trkpt>
      <trkpt lat="42.46143" lon="0.03343">
        <ele>773.8</ele>
        <time>2017-07-31T10:32:03Z</time>
      </trkpt>
      <trkpt lat="42.46144" lon="0.03349">
        <ele>772.8</ele>
        <time>2017-07-31T10:32:05Z</time>
      </trkpt>
      <trkpt lat="42.46144" lon="0.03356">
        <ele>771.8</ele>
        <time>2017-07-31T10:32:07Z</time>
      </trkpt>
      <trkpt lat="42.46145" lon="0.03359">
        <ele>771.3</ele>
        <time>2017-07-31T10:32:08Z</time>
      </trkpt>
      <trkpt lat="42.46146" lon="0.03364">
        <ele>770.7</ele>
        <time>2017-07-31T10:32:09Z</time>
      </trkpt>
      <trkpt lat="42.46146" lon="0.03368">
        <ele>770.2</ele>
        <time>2017-07-31T10:32:10Z</time>
      </trkpt>
      <trkpt lat="42.46146" lon="0.03372">
        <ele>769.6</ele>
        <time>2017-07-31T10:32:11Z</time>
      </trkpt>
      <trkpt lat="42.46146" lon="0.03378">
        <ele>769</ele>
        <time>2017-07-31T10:32:12Z</time>
      </trkpt>
      <trkpt lat="42.46147" lon="0.03382">
        <ele>768.4</ele>
        <time>2017-07-31T10:32:13Z</time>
      </trkpt>
      <trkpt lat="42.46147" lon="0.03387">
        <ele>768</ele>
        <time>2017-07-31T10:32:14Z</time>
      </trkpt>
      <trkpt lat="42.46147" lon="0.03391">
        <ele>767.6</ele>
        <time>2017-07-31T10:32:15Z</time>
      </trkpt>
      <trkpt lat="42.46147" lon="0.03395">
        <ele>767.1</ele>
        <time>2017-07-31T10:32:16Z</time>
      </trkpt>
      <trkpt lat="42.46148" lon="0.03399">
        <ele>766.7</ele>
        <time>2017-07-31T10:32:17Z</time>
      </trkpt>
      <trkpt lat="42.46149" lon="0.03403">
        <ele>766.3</ele>
        <time>2017-07-31T10:32:18Z</time>
      </trkpt>
      <trkpt lat="42.4615" lon="0.03407">
        <ele>765.8</ele>
        <time>2017-07-31T10:32:19Z</time>
      </trkpt>
      <trkpt lat="42.46151" lon="0.03411">
        <ele>765.4</ele>
        <time>2017-07-31T10:32:20Z</time>
      </trkpt>
      <trkpt lat="42.46151" lon="0.03415">
        <ele>764.9</ele>
        <time>2017-07-31T10:32:21Z</time>
      </trkpt>
      <trkpt lat="42.46152" lon="0.03421">
        <ele>763.8</ele>
        <time>2017-07-31T10:32:23Z</time>
      </trkpt>
      <trkpt lat="42.46154" lon="0.03426">
        <ele>762.6</ele>
        <time>2017-07-31T10:32:25Z</time>
      </trkpt>
      <trkpt lat="42.46157" lon="0.03433">
        <ele>761.9</ele>
        <time>2017-07-31T10:32:27Z</time>
      </trkpt>
      <trkpt lat="42.46159" lon="0.03438">
        <ele>761.5</ele>
        <time>2017-07-31T10:32:28Z</time>
      </trkpt>
      <trkpt lat="42.46162" lon="0.03444">
        <ele>760.4</ele>
        <time>2017-07-31T10:32:29Z</time>
      </trkpt>
      <trkpt lat="42.46165" lon="0.03449">
        <ele>759.2</ele>
        <time>2017-07-31T10:32:30Z</time>
      </trkpt>
      <trkpt lat="42.46168" lon="0.03454">
        <ele>758</ele>
        <time>2017-07-31T10:32:31Z</time>
      </trkpt>
      <trkpt lat="42.46171" lon="0.03458">
        <ele>756.9</ele>
        <time>2017-07-31T10:32:32Z</time>
      </trkpt>
      <trkpt lat="42.46174" lon="0.03462">
        <ele>755.9</ele>
        <time>2017-07-31T10:32:33Z</time>
      </trkpt>
      <trkpt lat="42.46176" lon="0.03467">
        <ele>755.2</ele>
        <time>2017-07-31T10:32:34Z</time>
      </trkpt>
      <trkpt lat="42.46177" lon="0.03471">
        <ele>754.7</ele>
        <time>2017-07-31T10:32:35Z</time>
      </trkpt>
      <trkpt lat="42.46178" lon="0.03474">
        <ele>754.2</ele>
        <time>2017-07-31T10:32:36Z</time>
      </trkpt>
      <trkpt lat="42.4618" lon="0.03478">
        <ele>753.8</ele>
        <time>2017-07-31T10:32:37Z</time>
      </trkpt>
      <trkpt lat="42.46182" lon="0.03481">
        <ele>753.3</ele>
        <time>2017-07-31T10:32:38Z</time>
      </trkpt>
      <trkpt lat="42.46185" lon="0.03484">
        <ele>752.7</ele>
        <time>2017-07-31T10:32:39Z</time>
      </trkpt>
      <trkpt lat="42.46187" lon="0.03488">
        <ele>752.2</ele>
        <time>2017-07-31T10:32:40Z</time>
      </trkpt>
      <trkpt lat="42.4619" lon="0.03491">
        <ele>751.8</ele>
        <time>2017-07-31T10:32:41Z</time>
      </trkpt>
      <trkpt lat="42.46192" lon="0.03494">
        <ele>751.3</ele>
        <time>2017-07-31T10:32:42Z</time>
      </trkpt>
      <trkpt lat="42.46194" lon="0.03497">
        <ele>750.9</ele>
        <time>2017-07-31T10:32:43Z</time>
      </trkpt>
      <trkpt lat="42.46196" lon="0.03501">
        <ele>750.5</ele>
        <time>2017-07-31T10:32:44Z</time>
      </trkpt>
      <trkpt lat="42.46197" lon="0.03504">
        <ele>750.2</ele>
        <time>2017-07-31T10:32:45Z</time>
      </trkpt>
      <trkpt lat="42.46199" lon="0.0351">
        <ele>749.6</ele>
        <time>2017-07-31T10:32:47Z</time>
      </trkpt>
      <trkpt lat="42.462" lon="0.03516">
        <ele>749</ele>
        <time>2017-07-31T10:32:49Z</time>
      </trkpt>
      <trkpt lat="42.46201" lon="0.0352">
        <ele>748.4</ele>
        <time>2017-07-31T10:32:51Z</time>
      </trkpt>
      <trkpt lat="42.46201" lon="0.03524">
        <ele>748</ele>
        <time>2017-07-31T10:32:52Z</time>
      </trkpt>
      <trkpt lat="42.46202" lon="0.03528">
        <ele>747.7</ele>
        <time>2017-07-31T10:32:53Z</time>
      </trkpt>
      <trkpt lat="42.46203" lon="0.03531">
        <ele>747.2</ele>
        <time>2017-07-31T10:32:54Z</time>
      </trkpt>
      <trkpt lat="42.46206" lon="0.03535">
        <ele>746.7</ele>
        <time>2017-07-31T10:32:55Z</time>
      </trkpt>
      <trkpt lat="42.46208" lon="0.03537">
        <ele>746.2</ele>
        <time>2017-07-31T10:32:56Z</time>
      </trkpt>
      <trkpt lat="42.46211" lon="0.0354">
        <ele>745.8</ele>
        <time>2017-07-31T10:32:57Z</time>
      </trkpt>
      <trkpt lat="42.46215" lon="0.03543">
        <ele>745.2</ele>
        <time>2017-07-31T10:32:59Z</time>
      </trkpt>
      <trkpt lat="42.46216" lon="0.03546">
        <ele>744.8</ele>
        <time>2017-07-31T10:33:00Z</time>
      </trkpt>
      <trkpt lat="42.46218" lon="0.0355">
        <ele>744.4</ele>
        <time>2017-07-31T10:33:01Z</time>
      </trkpt>
      <trkpt lat="42.46219" lon="0.03555">
        <ele>743.9</ele>
        <time>2017-07-31T10:33:02Z</time>
      </trkpt>
      <trkpt lat="42.46221" lon="0.03561">
        <ele>743.3</ele>
        <time>2017-07-31T10:33:03Z</time>
      </trkpt>
      <trkpt lat="42.46223" lon="0.03567">
        <ele>742.6</ele>
        <time>2017-07-31T10:33:04Z</time>
      </trkpt>
      <trkpt lat="42.46224" lon="0.03574">
        <ele>742</ele>
        <time>2017-07-31T10:33:05Z</time>
      </trkpt>
      <trkpt lat="42.46225" lon="0.03581">
        <ele>741.6</ele>
        <time>2017-07-31T10:33:06Z</time>
      </trkpt>
      <trkpt lat="42.46225" lon="0.03587">
        <ele>741.4</ele>
        <time>2017-07-31T10:33:07Z</time>
      </trkpt>
      <trkpt lat="42.46225" lon="0.03595">
        <ele>741.1</ele>
        <time>2017-07-31T10:33:08Z</time>
      </trkpt>
      <trkpt lat="42.46225" lon="0.03602">
        <ele>740.5</ele>
        <time>2017-07-31T10:33:09Z</time>
      </trkpt>
      <trkpt lat="42.46225" lon="0.03609">
        <ele>739.9</ele>
        <time>2017-07-31T10:33:10Z</time>
      </trkpt>
      <trkpt lat="42.46226" lon="0.03616">
        <ele>739.3</ele>
        <time>2017-07-31T10:33:11Z</time>
      </trkpt>
      <trkpt lat="42.46226" lon="0.03623">
        <ele>738.7</ele>
        <time>2017-07-31T10:33:12Z</time>
      </trkpt>
      <trkpt lat="42.46226" lon="0.03629">
        <ele>738.2</ele>
        <time>2017-07-31T10:33:13Z</time>
      </trkpt>
      <trkpt lat="42.46225" lon="0.03636">
        <ele>737.7</ele>
        <time>2017-07-31T10:33:14Z</time>
      </trkpt>
      <trkpt lat="42.46225" lon="0.03642">
        <ele>737.2</ele>
        <time>2017-07-31T10:33:15Z</time>
      </trkpt>
      <trkpt lat="42.46224" lon="0.0365">
        <ele>736.7</ele>
        <time>2017-07-31T10:33:16Z</time>
      </trkpt>
      <trkpt lat="42.46223" lon="0.03658">
        <ele>736.5</ele>
        <time>2017-07-31T10:33:17Z</time>
      </trkpt>
      <trkpt lat="42.46223" lon="0.03665">
        <ele>736.3</ele>
        <time>2017-07-31T10:33:18Z</time>
      </trkpt>
      <trkpt lat="42.46221" lon="0.03671">
        <ele>736.2</ele>
        <time>2017-07-31T10:33:19Z</time>
      </trkpt>
      <trkpt lat="42.4622" lon="0.03676">
        <ele>736.1</ele>
        <time>2017-07-31T10:33:20Z</time>
      </trkpt>
      <trkpt lat="42.46218" lon="0.0368">
        <ele>736.1</ele>
        <time>2017-07-31T10:33:21Z</time>
      </trkpt>
      <trkpt lat="42.46217" lon="0.03684">
        <ele>736</ele>
        <time>2017-07-31T10:33:22Z</time>
      </trkpt>
      <trkpt lat="42.46215" lon="0.03689">
        <ele>735.9</ele>
        <time>2017-07-31T10:33:23Z</time>
      </trkpt>
      <trkpt lat="42.46214" lon="0.03693">
        <ele>735.9</ele>
        <time>2017-07-31T10:33:24Z</time>
      </trkpt>
      <trkpt lat="42.46213" lon="0.03698">
        <ele>735.8</ele>
        <time>2017-07-31T10:33:25Z</time>
      </trkpt>
      <trkpt lat="42.46212" lon="0.03703">
        <ele>735.8</ele>
        <time>2017-07-31T10:33:26Z</time>
      </trkpt>
      <trkpt lat="42.46212" lon="0.03708">
        <ele>735.6</ele>
        <time>2017-07-31T10:33:27Z</time>
      </trkpt>
      <trkpt lat="42.46211" lon="0.03713">
        <ele>735.5</ele>
        <time>2017-07-31T10:33:28Z</time>
      </trkpt>
      <trkpt lat="42.4621" lon="0.03717">
        <ele>735.3</ele>
        <time>2017-07-31T10:33:29Z</time>
      </trkpt>
      <trkpt lat="42.4621" lon="0.03721">
        <ele>735.2</ele>
        <time>2017-07-31T10:33:30Z</time>
      </trkpt>
      <trkpt lat="42.4621" lon="0.03725">
        <ele>735.1</ele>
        <time>2017-07-31T10:33:31Z</time>
      </trkpt>
      <trkpt lat="42.4621" lon="0.03731">
        <ele>734.8</ele>
        <time>2017-07-31T10:33:32Z</time>
      </trkpt>
      <trkpt lat="42.46209" lon="0.03738">
        <ele>734.4</ele>
        <time>2017-07-31T10:33:33Z</time>
      </trkpt>
      <trkpt lat="42.46209" lon="0.03744">
        <ele>734</ele>
        <time>2017-07-31T10:33:34Z</time>
      </trkpt>
      <trkpt lat="42.46208" lon="0.03751">
        <ele>733.5</ele>
        <time>2017-07-31T10:33:35Z</time>
      </trkpt>
      <trkpt lat="42.46207" lon="0.03756">
        <ele>733.3</ele>
        <time>2017-07-31T10:33:36Z</time>
      </trkpt>
      <trkpt lat="42.46206" lon="0.03761">
        <ele>733.2</ele>
        <time>2017-07-31T10:33:37Z</time>
      </trkpt>
      <trkpt lat="42.46204" lon="0.03766">
        <ele>733.1</ele>
        <time>2017-07-31T10:33:38Z</time>
      </trkpt>
      <trkpt lat="42.46203" lon="0.03771">
        <ele>732.9</ele>
        <time>2017-07-31T10:33:39Z</time>
      </trkpt>
      <trkpt lat="42.46201" lon="0.03774">
        <ele>732.9</ele>
        <time>2017-07-31T10:33:40Z</time>
      </trkpt>
      <trkpt lat="42.46199" lon="0.03777">
        <ele>733.1</ele>
        <time>2017-07-31T10:33:42Z</time>
      </trkpt>
      <trkpt lat="42.46196" lon="0.03778">
        <ele>733.4</ele>
        <time>2017-07-31T10:33:47Z</time>
      </trkpt>
      <trkpt lat="42.46193" lon="0.03781">
        <ele>733.7</ele>
        <time>2017-07-31T10:33:50Z</time>
      </trkpt>
      <trkpt lat="42.46191" lon="0.03784">
        <ele>733.9</ele>
        <time>2017-07-31T10:33:52Z</time>
      </trkpt>
      <trkpt lat="42.46189" lon="0.03788">
        <ele>734.1</ele>
        <time>2017-07-31T10:33:54Z</time>
      </trkpt>
      <trkpt lat="42.46188" lon="0.03792">
        <ele>734.3</ele>
        <time>2017-07-31T10:33:57Z</time>
      </trkpt>
      <trkpt lat="42.46186" lon="0.03796">
        <ele>734.8</ele>
        <time>2017-07-31T10:34:01Z</time>
      </trkpt>
      <trkpt lat="42.46185" lon="0.038">
        <ele>734.8</ele>
        <time>2017-07-31T10:34:05Z</time>
      </trkpt>
      <trkpt lat="42.46188" lon="0.03802">
        <ele>734.9</ele>
        <time>2017-07-31T10:34:08Z</time>
      </trkpt>
      <trkpt lat="42.46191" lon="0.03804">
        <ele>734.9</ele>
        <time>2017-07-31T10:34:12Z</time>
      </trkpt>
      <trkpt lat="42.46192" lon="0.03808">
        <ele>734.9</ele>
        <time>2017-07-31T10:34:15Z</time>
      </trkpt>
      <trkpt lat="42.46195" lon="0.03813">
        <ele>734.9</ele>
        <time>2017-07-31T10:34:17Z</time>
      </trkpt>
      <trkpt lat="42.46196" lon="0.03819">
        <ele>734.8</ele>
        <time>2017-07-31T10:34:19Z</time>
      </trkpt>
      <trkpt lat="42.46195" lon="0.03823">
        <ele>734.8</ele>
        <time>2017-07-31T10:34:20Z</time>
      </trkpt>
      <trkpt lat="42.46193" lon="0.03829">
        <ele>734.7</ele>
        <time>2017-07-31T10:34:22Z</time>
      </trkpt>
      <trkpt lat="42.46191" lon="0.03833">
        <ele>734.7</ele>
        <time>2017-07-31T10:34:24Z</time>
      </trkpt>
      <trkpt lat="42.4619" lon="0.03838">
        <ele>734.6</ele>
        <time>2017-07-31T10:34:26Z</time>
      </trkpt>
      <trkpt lat="42.46191" lon="0.03843">
        <ele>734.5</ele>
        <time>2017-07-31T10:34:28Z</time>
      </trkpt>
      <trkpt lat="42.46193" lon="0.03848">
        <ele>734.3</ele>
        <time>2017-07-31T10:34:30Z</time>
      </trkpt>
      <trkpt lat="42.46195" lon="0.03851">
        <ele>734.3</ele>
        <time>2017-07-31T10:34:31Z</time>
      </trkpt>
      <trkpt lat="42.46196" lon="0.03855">
        <ele>734.2</ele>
        <time>2017-07-31T10:34:32Z</time>
      </trkpt>
      <trkpt lat="42.46198" lon="0.03858">
        <ele>734</ele>
        <time>2017-07-31T10:34:33Z</time>
      </trkpt>
      <trkpt lat="42.46199" lon="0.03861">
        <ele>733.8</ele>
        <time>2017-07-31T10:34:34Z</time>
      </trkpt>
      <trkpt lat="42.462" lon="0.03865">
        <ele>733.5</ele>
        <time>2017-07-31T10:34:35Z</time>
      </trkpt>
      <trkpt lat="42.46201" lon="0.03868">
        <ele>733.2</ele>
        <time>2017-07-31T10:34:36Z</time>
      </trkpt>
      <trkpt lat="42.46202" lon="0.03872">
        <ele>733</ele>
        <time>2017-07-31T10:34:37Z</time>
      </trkpt>
      <trkpt lat="42.46203" lon="0.03876">
        <ele>732.8</ele>
        <time>2017-07-31T10:34:38Z</time>
      </trkpt>
      <trkpt lat="42.46205" lon="0.0388">
        <ele>732.3</ele>
        <time>2017-07-31T10:34:39Z</time>
      </trkpt>
      <trkpt lat="42.46205" lon="0.03885">
        <ele>731.8</ele>
        <time>2017-07-31T10:34:40Z</time>
      </trkpt>
      <trkpt lat="42.46206" lon="0.03891">
        <ele>731.3</ele>
        <time>2017-07-31T10:34:41Z</time>
      </trkpt>
      <trkpt lat="42.46206" lon="0.03896">
        <ele>730.9</ele>
        <time>2017-07-31T10:34:42Z</time>
      </trkpt>
      <trkpt lat="42.46206" lon="0.03901">
        <ele>730.7</ele>
        <time>2017-07-31T10:34:43Z</time>
      </trkpt>
      <trkpt lat="42.46206" lon="0.03905">
        <ele>730.5</ele>
        <time>2017-07-31T10:34:44Z</time>
      </trkpt>
      <trkpt lat="42.46206" lon="0.03909">
        <ele>730.3</ele>
        <time>2017-07-31T10:34:45Z</time>
      </trkpt>
      <trkpt lat="42.46206" lon="0.03913">
        <ele>730.1</ele>
        <time>2017-07-31T10:34:46Z</time>
      </trkpt>
      <trkpt lat="42.46206" lon="0.03918">
        <ele>729.4</ele>
        <time>2017-07-31T10:34:47Z</time>
      </trkpt>
      <trkpt lat="42.46206" lon="0.03922">
        <ele>728.8</ele>
        <time>2017-07-31T10:34:48Z</time>
      </trkpt>
      <trkpt lat="42.46206" lon="0.03928">
        <ele>728.4</ele>
        <time>2017-07-31T10:34:50Z</time>
      </trkpt>
      <trkpt lat="42.46206" lon="0.03932">
        <ele>728.2</ele>
        <time>2017-07-31T10:34:51Z</time>
      </trkpt>
      <trkpt lat="42.46206" lon="0.03937">
        <ele>727.9</ele>
        <time>2017-07-31T10:34:52Z</time>
      </trkpt>
      <trkpt lat="42.46207" lon="0.03942">
        <ele>727.3</ele>
        <time>2017-07-31T10:34:53Z</time>
      </trkpt>
      <trkpt lat="42.46207" lon="0.03946">
        <ele>726.7</ele>
        <time>2017-07-31T10:34:54Z</time>
      </trkpt>
      <trkpt lat="42.46208" lon="0.03952">
        <ele>725.9</ele>
        <time>2017-07-31T10:34:55Z</time>
      </trkpt>
      <trkpt lat="42.46209" lon="0.03957">
        <ele>724.9</ele>
        <time>2017-07-31T10:34:56Z</time>
      </trkpt>
      <trkpt lat="42.46211" lon="0.03963">
        <ele>724.1</ele>
        <time>2017-07-31T10:34:57Z</time>
      </trkpt>
      <trkpt lat="42.46213" lon="0.03969">
        <ele>723.5</ele>
        <time>2017-07-31T10:34:58Z</time>
      </trkpt>
      <trkpt lat="42.46214" lon="0.03975">
        <ele>723.3</ele>
        <time>2017-07-31T10:34:59Z</time>
      </trkpt>
      <trkpt lat="42.46215" lon="0.03981">
        <ele>723.2</ele>
        <time>2017-07-31T10:35:00Z</time>
      </trkpt>
      <trkpt lat="42.46215" lon="0.03987">
        <ele>723.1</ele>
        <time>2017-07-31T10:35:01Z</time>
      </trkpt>
      <trkpt lat="42.46215" lon="0.03993">
        <ele>723</ele>
        <time>2017-07-31T10:35:02Z</time>
      </trkpt>
      <trkpt lat="42.46214" lon="0.03998">
        <ele>722.9</ele>
        <time>2017-07-31T10:35:03Z</time>
      </trkpt>
      <trkpt lat="42.46213" lon="0.04004">
        <ele>722.8</ele>
        <time>2017-07-31T10:35:04Z</time>
      </trkpt>
      <trkpt lat="42.46213" lon="0.04009">
        <ele>722.7</ele>
        <time>2017-07-31T10:35:05Z</time>
      </trkpt>
      <trkpt lat="42.46212" lon="0.04015">
        <ele>722.7</ele>
        <time>2017-07-31T10:35:06Z</time>
      </trkpt>
      <trkpt lat="42.46212" lon="0.0402">
        <ele>722.6</ele>
        <time>2017-07-31T10:35:07Z</time>
      </trkpt>
      <trkpt lat="42.46212" lon="0.04025">
        <ele>722.6</ele>
        <time>2017-07-31T10:35:08Z</time>
      </trkpt>
      <trkpt lat="42.46212" lon="0.04031">
        <ele>722.6</ele>
        <time>2017-07-31T10:35:09Z</time>
      </trkpt>
      <trkpt lat="42.46212" lon="0.04036">
        <ele>722.5</ele>
        <time>2017-07-31T10:35:10Z</time>
      </trkpt>
      <trkpt lat="42.46211" lon="0.04042">
        <ele>722.5</ele>
        <time>2017-07-31T10:35:11Z</time>
      </trkpt>
      <trkpt lat="42.46211" lon="0.04048">
        <ele>722.5</ele>
        <time>2017-07-31T10:35:12Z</time>
      </trkpt>
      <trkpt lat="42.46212" lon="0.04054">
        <ele>722.4</ele>
        <time>2017-07-31T10:35:13Z</time>
      </trkpt>
      <trkpt lat="42.46212" lon="0.0406">
        <ele>722.4</ele>
        <time>2017-07-31T10:35:14Z</time>
      </trkpt>
      <trkpt lat="42.46213" lon="0.04065">
        <ele>722.4</ele>
        <time>2017-07-31T10:35:15Z</time>
      </trkpt>
      <trkpt lat="42.46213" lon="0.04069">
        <ele>722.3</ele>
        <time>2017-07-31T10:35:16Z</time>
      </trkpt>
      <trkpt lat="42.46211" lon="0.04075">
        <ele>722.3</ele>
        <time>2017-07-31T10:35:18Z</time>
      </trkpt>
      <trkpt lat="42.46209" lon="0.04079">
        <ele>722.2</ele>
        <time>2017-07-31T10:35:20Z</time>
      </trkpt>
      <trkpt lat="42.46208" lon="0.04084">
        <ele>722.2</ele>
        <time>2017-07-31T10:35:22Z</time>
      </trkpt>
      <trkpt lat="42.46208" lon="0.04092">
        <ele>722.1</ele>
        <time>2017-07-31T10:35:24Z</time>
      </trkpt>
      <trkpt lat="42.46208" lon="0.04096">
        <ele>722.1</ele>
        <time>2017-07-31T10:35:25Z</time>
      </trkpt>
      <trkpt lat="42.46209" lon="0.04099">
        <ele>722.1</ele>
        <time>2017-07-31T10:35:26Z</time>
      </trkpt>
      <trkpt lat="42.46209" lon="0.04103">
        <ele>722.1</ele>
        <time>2017-07-31T10:35:27Z</time>
      </trkpt>
      <trkpt lat="42.4621" lon="0.04107">
        <ele>722</ele>
        <time>2017-07-31T10:35:28Z</time>
      </trkpt>
      <trkpt lat="42.4621" lon="0.04111">
        <ele>721.9</ele>
        <time>2017-07-31T10:35:29Z</time>
      </trkpt>
      <trkpt lat="42.4621" lon="0.04116">
        <ele>721.9</ele>
        <time>2017-07-31T10:35:30Z</time>
      </trkpt>
      <trkpt lat="42.46211" lon="0.04121">
        <ele>721.8</ele>
        <time>2017-07-31T10:35:31Z</time>
      </trkpt>
      <trkpt lat="42.46211" lon="0.04126">
        <ele>721.8</ele>
        <time>2017-07-31T10:35:32Z</time>
      </trkpt>
      <trkpt lat="42.46211" lon="0.04132">
        <ele>721.8</ele>
        <time>2017-07-31T10:35:33Z</time>
      </trkpt>
      <trkpt lat="42.46211" lon="0.04137">
        <ele>721.7</ele>
        <time>2017-07-31T10:35:34Z</time>
      </trkpt>
      <trkpt lat="42.46212" lon="0.04142">
        <ele>721.7</ele>
        <time>2017-07-31T10:35:35Z</time>
      </trkpt>
      <trkpt lat="42.46212" lon="0.04147">
        <ele>721.7</ele>
        <time>2017-07-31T10:35:36Z</time>
      </trkpt>
      <trkpt lat="42.46212" lon="0.04152">
        <ele>721.7</ele>
        <time>2017-07-31T10:35:37Z</time>
      </trkpt>
      <trkpt lat="42.46213" lon="0.04157">
        <ele>721.6</ele>
        <time>2017-07-31T10:35:38Z</time>
      </trkpt>
      <trkpt lat="42.46213" lon="0.04161">
        <ele>721.6</ele>
        <time>2017-07-31T10:35:39Z</time>
      </trkpt>
      <trkpt lat="42.46214" lon="0.04166">
        <ele>721.6</ele>
        <time>2017-07-31T10:35:40Z</time>
      </trkpt>
      <trkpt lat="42.46214" lon="0.04171">
        <ele>721.5</ele>
        <time>2017-07-31T10:35:41Z</time>
      </trkpt>
      <trkpt lat="42.46213" lon="0.04177">
        <ele>721.5</ele>
        <time>2017-07-31T10:35:43Z</time>
      </trkpt>
      <trkpt lat="42.46213" lon="0.04181">
        <ele>721.5</ele>
        <time>2017-07-31T10:35:45Z</time>
      </trkpt>
      <trkpt lat="42.46213" lon="0.04188">
        <ele>721.4</ele>
        <time>2017-07-31T10:35:47Z</time>
      </trkpt>
      <trkpt lat="42.46213" lon="0.04193">
        <ele>721.4</ele>
        <time>2017-07-31T10:35:49Z</time>
      </trkpt>
      <trkpt lat="42.46213" lon="0.04197">
        <ele>721.4</ele>
        <time>2017-07-31T10:35:56Z</time>
      </trkpt>
      <trkpt lat="42.46215" lon="0.04201">
        <ele>721.4</ele>
        <time>2017-07-31T10:36:01Z</time>
      </trkpt>
      <trkpt lat="42.46215" lon="0.04206">
        <ele>721.5</ele>
        <time>2017-07-31T10:36:05Z</time>
      </trkpt>
      <trkpt lat="42.46216" lon="0.0421">
        <ele>722</ele>
        <time>2017-07-31T10:36:09Z</time>
      </trkpt>
      <trkpt lat="42.46217" lon="0.04214">
        <ele>722.2</ele>
        <time>2017-07-31T10:36:15Z</time>
      </trkpt>
      <trkpt lat="42.46217" lon="0.0422">
        <ele>722.3</ele>
        <time>2017-07-31T10:36:17Z</time>
      </trkpt>
      <trkpt lat="42.46217" lon="0.04225">
        <ele>722.2</ele>
        <time>2017-07-31T10:36:19Z</time>
      </trkpt>
      <trkpt lat="42.46217" lon="0.04229">
        <ele>722.2</ele>
        <time>2017-07-31T10:36:21Z</time>
      </trkpt>
      <trkpt lat="42.46217" lon="0.04234">
        <ele>722.2</ele>
        <time>2017-07-31T10:36:23Z</time>
      </trkpt>
      <trkpt lat="42.46216" lon="0.0424">
        <ele>722.1</ele>
        <time>2017-07-31T10:36:25Z</time>
      </trkpt>
      <trkpt lat="42.46216" lon="0.04246">
        <ele>722</ele>
        <time>2017-07-31T10:36:27Z</time>
      </trkpt>
      <trkpt lat="42.46216" lon="0.04254">
        <ele>721.9</ele>
        <time>2017-07-31T10:36:29Z</time>
      </trkpt>
      <trkpt lat="42.46217" lon="0.04258">
        <ele>721.8</ele>
        <time>2017-07-31T10:36:30Z</time>
      </trkpt>
      <trkpt lat="42.46217" lon="0.04262">
        <ele>721.7</ele>
        <time>2017-07-31T10:36:31Z</time>
      </trkpt>
      <trkpt lat="42.46217" lon="0.04267">
        <ele>721.7</ele>
        <time>2017-07-31T10:36:32Z</time>
      </trkpt>
      <trkpt lat="42.46217" lon="0.04272">
        <ele>721.7</ele>
        <time>2017-07-31T10:36:33Z</time>
      </trkpt>
      <trkpt lat="42.46217" lon="0.04277">
        <ele>721.6</ele>
        <time>2017-07-31T10:36:34Z</time>
      </trkpt>
      <trkpt lat="42.46218" lon="0.04283">
        <ele>721.6</ele>
        <time>2017-07-31T10:36:35Z</time>
      </trkpt>
      <trkpt lat="42.46218" lon="0.04287">
        <ele>721.5</ele>
        <time>2017-07-31T10:36:36Z</time>
      </trkpt>
      <trkpt lat="42.4622" lon="0.0429">
        <ele>721.5</ele>
        <time>2017-07-31T10:36:43Z</time>
      </trkpt>
      <trkpt lat="42.4622" lon="0.04294">
        <ele>721.4</ele>
        <time>2017-07-31T10:36:49Z</time>
      </trkpt>
      <trkpt lat="42.46221" lon="0.04299">
        <ele>721.4</ele>
        <time>2017-07-31T10:36:53Z</time>
      </trkpt>
      <trkpt lat="42.46223" lon="0.04305">
        <ele>721.2</ele>
        <time>2017-07-31T10:36:55Z</time>
      </trkpt>
      <trkpt lat="42.46225" lon="0.04309">
        <ele>721.1</ele>
        <time>2017-07-31T10:36:56Z</time>
      </trkpt>
      <trkpt lat="42.46226" lon="0.04313">
        <ele>720.8</ele>
        <time>2017-07-31T10:36:57Z</time>
      </trkpt>
      <trkpt lat="42.46226" lon="0.04317">
        <ele>720.8</ele>
        <time>2017-07-31T10:36:58Z</time>
      </trkpt>
      <trkpt lat="42.46226" lon="0.04322">
        <ele>720.7</ele>
        <time>2017-07-31T10:37:00Z</time>
      </trkpt>
      <trkpt lat="42.46223" lon="0.04326">
        <ele>720.6</ele>
        <time>2017-07-31T10:37:02Z</time>
      </trkpt>
      <trkpt lat="42.4622" lon="0.04326">
        <ele>720.6</ele>
        <time>2017-07-31T10:37:07Z</time>
      </trkpt>
      <trkpt lat="42.46217" lon="0.04326">
        <ele>720.5</ele>
        <time>2017-07-31T10:37:11Z</time>
      </trkpt>
      <trkpt lat="42.46214" lon="0.04327">
        <ele>720.4</ele>
        <time>2017-07-31T10:37:15Z</time>
      </trkpt>
      <trkpt lat="42.46211" lon="0.04328">
        <ele>720.2</ele>
        <time>2017-07-31T10:37:20Z</time>
      </trkpt>
      <trkpt lat="42.46208" lon="0.04329">
        <ele>720.1</ele>
        <time>2017-07-31T10:37:27Z</time>
      </trkpt>
      <trkpt lat="42.46205" lon="0.04329">
        <ele>719.9</ele>
        <time>2017-07-31T10:37:31Z</time>
      </trkpt>
      <trkpt lat="42.46202" lon="0.04327">
        <ele>719.7</ele>
        <time>2017-07-31T10:37:38Z</time>
      </trkpt>
      <trkpt lat="42.46199" lon="0.04327">
        <ele>719.5</ele>
        <time>2017-07-31T10:37:40Z</time>
      </trkpt>
      <trkpt lat="42.46195" lon="0.04327">
        <ele>719.1</ele>
        <time>2017-07-31T10:37:42Z</time>
      </trkpt>
      <trkpt lat="42.46191" lon="0.04327">
        <ele>718.6</ele>
        <time>2017-07-31T10:37:44Z</time>
      </trkpt>
      <trkpt lat="42.46189" lon="0.04328">
        <ele>718.2</ele>
        <time>2017-07-31T10:37:49Z</time>
      </trkpt>
      <trkpt lat="42.46186" lon="0.0433">
        <ele>717.7</ele>
        <time>2017-07-31T10:38:55Z</time>
      </trkpt>
      <trkpt lat="42.46184" lon="0.04333">
        <ele>717.2</ele>
        <time>2017-07-31T10:38:57Z</time>
      </trkpt>
      <trkpt lat="42.46182" lon="0.04336">
        <ele>717</ele>
        <time>2017-07-31T10:39:02Z</time>
      </trkpt>
      <trkpt lat="42.46181" lon="0.0434">
        <ele>716.8</ele>
        <time>2017-07-31T10:39:06Z</time>
      </trkpt>
      <trkpt lat="42.4618" lon="0.04343">
        <ele>716.5</ele>
        <time>2017-07-31T10:39:09Z</time>
      </trkpt>
      <trkpt lat="42.46177" lon="0.04347">
        <ele>716.2</ele>
        <time>2017-07-31T10:39:13Z</time>
      </trkpt>
      <trkpt lat="42.46174" lon="0.04349">
        <ele>715.9</ele>
        <time>2017-07-31T10:39:16Z</time>
      </trkpt>
      <trkpt lat="42.46172" lon="0.04351">
        <ele>715.1</ele>
        <time>2017-07-31T10:39:19Z</time>
      </trkpt>
      <trkpt lat="42.46168" lon="0.04353">
        <ele>714.3</ele>
        <time>2017-07-31T10:39:22Z</time>
      </trkpt>
      <trkpt lat="42.46165" lon="0.04353">
        <ele>713.7</ele>
        <time>2017-07-31T10:39:25Z</time>
      </trkpt>
      <trkpt lat="42.46162" lon="0.04352">
        <ele>713.1</ele>
        <time>2017-07-31T10:39:29Z</time>
      </trkpt>
      <trkpt lat="42.46159" lon="0.04352">
        <ele>712.5</ele>
        <time>2017-07-31T10:39:32Z</time>
      </trkpt>
      <trkpt lat="42.46156" lon="0.04349">
        <ele>712</ele>
        <time>2017-07-31T10:39:36Z</time>
      </trkpt>
      <trkpt lat="42.46153" lon="0.04347">
        <ele>711.8</ele>
        <time>2017-07-31T10:39:40Z</time>
      </trkpt>
      <trkpt lat="42.4615" lon="0.04346">
        <ele>711.6</ele>
        <time>2017-07-31T10:39:44Z</time>
      </trkpt>
      <trkpt lat="42.46147" lon="0.04345">
        <ele>711.4</ele>
        <time>2017-07-31T10:40:30Z</time>
      </trkpt>
      <trkpt lat="42.46144" lon="0.04342">
        <ele>711</ele>
        <time>2017-07-31T10:40:34Z</time>
      </trkpt>
      <trkpt lat="42.46142" lon="0.04339">
        <ele>710.7</ele>
        <time>2017-07-31T10:40:43Z</time>
      </trkpt>
      <trkpt lat="42.4614" lon="0.04336">
        <ele>710.4</ele>
        <time>2017-07-31T10:40:51Z</time>
      </trkpt>
      <trkpt lat="42.46136" lon="0.04336">
        <ele>709.9</ele>
        <time>2017-07-31T10:40:56Z</time>
      </trkpt>
      <trkpt lat="42.46133" lon="0.04335">
        <ele>709</ele>
        <time>2017-07-31T10:41:00Z</time>
      </trkpt>
      <trkpt lat="42.4613" lon="0.04335">
        <ele>708.7</ele>
        <time>2017-07-31T10:41:04Z</time>
      </trkpt>
      <trkpt lat="42.46126" lon="0.04333">
        <ele>708.4</ele>
        <time>2017-07-31T10:41:08Z</time>
      </trkpt>
      <trkpt lat="42.46121" lon="0.04332">
        <ele>708.3</ele>
        <time>2017-07-31T10:41:10Z</time>
      </trkpt>
      <trkpt lat="42.46116" lon="0.04331">
        <ele>708</ele>
        <time>2017-07-31T10:41:12Z</time>
      </trkpt>
      <trkpt lat="42.46113" lon="0.04332">
        <ele>707.8</ele>
        <time>2017-07-31T10:41:13Z</time>
      </trkpt>
      <trkpt lat="42.4611" lon="0.04332">
        <ele>707.5</ele>
        <time>2017-07-31T10:41:14Z</time>
      </trkpt>
      <trkpt lat="42.46107" lon="0.04333">
        <ele>707.3</ele>
        <time>2017-07-31T10:41:15Z</time>
      </trkpt>
      <trkpt lat="42.46104" lon="0.04334">
        <ele>707.1</ele>
        <time>2017-07-31T10:41:16Z</time>
      </trkpt>
      <trkpt lat="42.46101" lon="0.04335">
        <ele>706.8</ele>
        <time>2017-07-31T10:41:17Z</time>
      </trkpt>
      <trkpt lat="42.46098" lon="0.04337">
        <ele>706.6</ele>
        <time>2017-07-31T10:41:18Z</time>
      </trkpt>
      <trkpt lat="42.46093" lon="0.04339">
        <ele>706</ele>
        <time>2017-07-31T10:41:20Z</time>
      </trkpt>
      <trkpt lat="42.46091" lon="0.04343">
        <ele>705.5</ele>
        <time>2017-07-31T10:41:22Z</time>
      </trkpt>
      <trkpt lat="42.46091" lon="0.04349">
        <ele>705</ele>
        <time>2017-07-31T10:41:24Z</time>
      </trkpt>
      <trkpt lat="42.46092" lon="0.04354">
        <ele>704.4</ele>
        <time>2017-07-31T10:41:26Z</time>
      </trkpt>
      <trkpt lat="42.46093" lon="0.04357">
        <ele>704</ele>
        <time>2017-07-31T10:41:30Z</time>
      </trkpt>
      <trkpt lat="42.46093" lon="0.04361">
        <ele>703.5</ele>
        <time>2017-07-31T10:41:33Z</time>
      </trkpt>
      <trkpt lat="42.46093" lon="0.04365">
        <ele>703</ele>
        <time>2017-07-31T10:41:38Z</time>
      </trkpt>
      <trkpt lat="42.46093" lon="0.04369">
        <ele>702.8</ele>
        <time>2017-07-31T10:41:50Z</time>
      </trkpt>
      <trkpt lat="42.46092" lon="0.04374">
        <ele>702.4</ele>
        <time>2017-07-31T10:41:57Z</time>
      </trkpt>
      <trkpt lat="42.4609" lon="0.04378">
        <ele>701.9</ele>
        <time>2017-07-31T10:41:59Z</time>
      </trkpt>
      <trkpt lat="42.46088" lon="0.04383">
        <ele>701.5</ele>
        <time>2017-07-31T10:42:01Z</time>
      </trkpt>
      <trkpt lat="42.46085" lon="0.04388">
        <ele>699.9</ele>
        <time>2017-07-31T10:42:03Z</time>
      </trkpt>
      <trkpt lat="42.46082" lon="0.04392">
        <ele>699.2</ele>
        <time>2017-07-31T10:42:05Z</time>
      </trkpt>
      <trkpt lat="42.46077" lon="0.04393">
        <ele>698.9</ele>
        <time>2017-07-31T10:42:07Z</time>
      </trkpt>
      <trkpt lat="42.46072" lon="0.04392">
        <ele>698.5</ele>
        <time>2017-07-31T10:42:09Z</time>
      </trkpt>
      <trkpt lat="42.46067" lon="0.04392">
        <ele>697.8</ele>
        <time>2017-07-31T10:42:11Z</time>
      </trkpt>
      <trkpt lat="42.46063" lon="0.04393">
        <ele>697.3</ele>
        <time>2017-07-31T10:42:12Z</time>
      </trkpt>
      <trkpt lat="42.4606" lon="0.04394">
        <ele>696.9</ele>
        <time>2017-07-31T10:42:13Z</time>
      </trkpt>
      <trkpt lat="42.46057" lon="0.04395">
        <ele>696.6</ele>
        <time>2017-07-31T10:42:14Z</time>
      </trkpt>
      <trkpt lat="42.46053" lon="0.04396">
        <ele>696.2</ele>
        <time>2017-07-31T10:42:16Z</time>
      </trkpt>
      <trkpt lat="42.46049" lon="0.04395">
        <ele>696</ele>
        <time>2017-07-31T10:42:20Z</time>
      </trkpt>
      <trkpt lat="42.46045" lon="0.04395">
        <ele>695.7</ele>
        <time>2017-07-31T10:42:22Z</time>
      </trkpt>
      <trkpt lat="42.46042" lon="0.04395">
        <ele>695.5</ele>
        <time>2017-07-31T10:42:23Z</time>
      </trkpt>
      <trkpt lat="42.46038" lon="0.04395">
        <ele>695</ele>
        <time>2017-07-31T10:42:24Z</time>
      </trkpt>
      <trkpt lat="42.46035" lon="0.04396">
        <ele>694.5</ele>
        <time>2017-07-31T10:42:25Z</time>
      </trkpt>
      <trkpt lat="42.46032" lon="0.04397">
        <ele>694</ele>
        <time>2017-07-31T10:42:26Z</time>
      </trkpt>
      <trkpt lat="42.4603" lon="0.04398">
        <ele>693.6</ele>
        <time>2017-07-31T10:42:27Z</time>
      </trkpt>
      <trkpt lat="42.46024" lon="0.04401">
        <ele>692.6</ele>
        <time>2017-07-31T10:42:29Z</time>
      </trkpt>
      <trkpt lat="42.4602" lon="0.04402">
        <ele>692</ele>
        <time>2017-07-31T10:42:30Z</time>
      </trkpt>
      <trkpt lat="42.46016" lon="0.04403">
        <ele>691.4</ele>
        <time>2017-07-31T10:42:31Z</time>
      </trkpt>
      <trkpt lat="42.46012" lon="0.04404">
        <ele>690.8</ele>
        <time>2017-07-31T10:42:32Z</time>
      </trkpt>
      <trkpt lat="42.46009" lon="0.04405">
        <ele>690.6</ele>
        <time>2017-07-31T10:42:33Z</time>
      </trkpt>
      <trkpt lat="42.46004" lon="0.04405">
        <ele>690.3</ele>
        <time>2017-07-31T10:42:35Z</time>
      </trkpt>
      <trkpt lat="42.46001" lon="0.04405">
        <ele>690.1</ele>
        <time>2017-07-31T10:42:36Z</time>
      </trkpt>
      <trkpt lat="42.45998" lon="0.04405">
        <ele>689.9</ele>
        <time>2017-07-31T10:42:37Z</time>
      </trkpt>
      <trkpt lat="42.45995" lon="0.04405">
        <ele>689.6</ele>
        <time>2017-07-31T10:42:38Z</time>
      </trkpt>
      <trkpt lat="42.45991" lon="0.04405">
        <ele>689.3</ele>
        <time>2017-07-31T10:42:39Z</time>
      </trkpt>
      <trkpt lat="42.45988" lon="0.04405">
        <ele>689</ele>
        <time>2017-07-31T10:42:40Z</time>
      </trkpt>
      <trkpt lat="42.45984" lon="0.04404">
        <ele>688.6</ele>
        <time>2017-07-31T10:42:41Z</time>
      </trkpt>
      <trkpt lat="42.45981" lon="0.04404">
        <ele>688.3</ele>
        <time>2017-07-31T10:42:42Z</time>
      </trkpt>
      <trkpt lat="42.45978" lon="0.04403">
        <ele>688.1</ele>
        <time>2017-07-31T10:42:43Z</time>
      </trkpt>
      <trkpt lat="42.45974" lon="0.04402">
        <ele>687.9</ele>
        <time>2017-07-31T10:42:44Z</time>
      </trkpt>
      <trkpt lat="42.45972" lon="0.04401">
        <ele>687.8</ele>
        <time>2017-07-31T10:42:45Z</time>
      </trkpt>
      <trkpt lat="42.45967" lon="0.04399">
        <ele>687.7</ele>
        <time>2017-07-31T10:42:47Z</time>
      </trkpt>
      <trkpt lat="42.45962" lon="0.04398">
        <ele>687.5</ele>
        <time>2017-07-31T10:42:49Z</time>
      </trkpt>
      <trkpt lat="42.45959" lon="0.04397">
        <ele>687.5</ele>
        <time>2017-07-31T10:42:51Z</time>
      </trkpt>
      <trkpt lat="42.45957" lon="0.044">
        <ele>687.4</ele>
        <time>2017-07-31T10:43:08Z</time>
      </trkpt>
      <trkpt lat="42.45954" lon="0.04401">
        <ele>687.3</ele>
        <time>2017-07-31T10:43:19Z</time>
      </trkpt>
      <trkpt lat="42.45952" lon="0.04403">
        <ele>687.3</ele>
        <time>2017-07-31T10:43:23Z</time>
      </trkpt>
      <trkpt lat="42.45953" lon="0.04407">
        <ele>687.2</ele>
        <time>2017-07-31T10:43:29Z</time>
      </trkpt>
      <trkpt lat="42.45955" lon="0.0441">
        <ele>687.1</ele>
        <time>2017-07-31T10:43:33Z</time>
      </trkpt>
      <trkpt lat="42.45957" lon="0.04412">
        <ele>687</ele>
        <time>2017-07-31T10:43:37Z</time>
      </trkpt>
      <trkpt lat="42.4596" lon="0.04414">
        <ele>687</ele>
        <time>2017-07-31T10:43:43Z</time>
      </trkpt>
      <trkpt lat="42.45959" lon="0.04418">
        <ele>686.9</ele>
        <time>2017-07-31T10:43:46Z</time>
      </trkpt>
      <trkpt lat="42.45955" lon="0.04418">
        <ele>686.8</ele>
        <time>2017-07-31T10:43:53Z</time>
      </trkpt>
      <trkpt lat="42.45951" lon="0.04415">
        <ele>686.8</ele>
        <time>2017-07-31T10:43:55Z</time>
      </trkpt>
      <trkpt lat="42.45949" lon="0.04413">
        <ele>686.7</ele>
        <time>2017-07-31T10:43:56Z</time>
      </trkpt>
      <trkpt lat="42.45946" lon="0.04411">
        <ele>686.7</ele>
        <time>2017-07-31T10:43:57Z</time>
      </trkpt>
      <trkpt lat="42.45944" lon="0.04409">
        <ele>686.7</ele>
        <time>2017-07-31T10:43:58Z</time>
      </trkpt>
      <trkpt lat="42.45941" lon="0.04408">
        <ele>686.6</ele>
        <time>2017-07-31T10:43:59Z</time>
      </trkpt>
      <trkpt lat="42.45937" lon="0.04407">
        <ele>686.5</ele>
        <time>2017-07-31T10:44:00Z</time>
      </trkpt>
      <trkpt lat="42.45934" lon="0.04407">
        <ele>686.4</ele>
        <time>2017-07-31T10:44:01Z</time>
      </trkpt>
      <trkpt lat="42.45931" lon="0.04408">
        <ele>686.3</ele>
        <time>2017-07-31T10:44:02Z</time>
      </trkpt>
      <trkpt lat="42.45928" lon="0.04409">
        <ele>686.1</ele>
        <time>2017-07-31T10:44:03Z</time>
      </trkpt>
      <trkpt lat="42.45924" lon="0.0441">
        <ele>686.1</ele>
        <time>2017-07-31T10:44:04Z</time>
      </trkpt>
      <trkpt lat="42.45921" lon="0.04411">
        <ele>686</ele>
        <time>2017-07-31T10:44:05Z</time>
      </trkpt>
      <trkpt lat="42.45918" lon="0.04412">
        <ele>685.9</ele>
        <time>2017-07-31T10:44:06Z</time>
      </trkpt>
      <trkpt lat="42.45915" lon="0.04413">
        <ele>685.9</ele>
        <time>2017-07-31T10:44:07Z</time>
      </trkpt>
      <trkpt lat="42.45912" lon="0.04413">
        <ele>685.8</ele>
        <time>2017-07-31T10:44:08Z</time>
      </trkpt>
      <trkpt lat="42.45909" lon="0.04414">
        <ele>685.7</ele>
        <time>2017-07-31T10:44:09Z</time>
      </trkpt>
      <trkpt lat="42.45904" lon="0.04415">
        <ele>685.6</ele>
        <time>2017-07-31T10:44:11Z</time>
      </trkpt>
      <trkpt lat="42.45899" lon="0.04415">
        <ele>685.5</ele>
        <time>2017-07-31T10:44:13Z</time>
      </trkpt>
      <trkpt lat="42.45894" lon="0.04416">
        <ele>685.3</ele>
        <time>2017-07-31T10:44:15Z</time>
      </trkpt>
      <trkpt lat="42.4589" lon="0.04417">
        <ele>685.1</ele>
        <time>2017-07-31T10:44:16Z</time>
      </trkpt>
      <trkpt lat="42.45886" lon="0.04417">
        <ele>684.9</ele>
        <time>2017-07-31T10:44:17Z</time>
      </trkpt>
      <trkpt lat="42.45881" lon="0.04417">
        <ele>684.6</ele>
        <time>2017-07-31T10:44:18Z</time>
      </trkpt>
      <trkpt lat="42.45876" lon="0.04417">
        <ele>684.2</ele>
        <time>2017-07-31T10:44:19Z</time>
      </trkpt>
      <trkpt lat="42.4587" lon="0.04416">
        <ele>683.7</ele>
        <time>2017-07-31T10:44:20Z</time>
      </trkpt>
      <trkpt lat="42.45864" lon="0.04413">
        <ele>683.2</ele>
        <time>2017-07-31T10:44:21Z</time>
      </trkpt>
      <trkpt lat="42.45858" lon="0.0441">
        <ele>682.6</ele>
        <time>2017-07-31T10:44:22Z</time>
      </trkpt>
      <trkpt lat="42.45853" lon="0.04407">
        <ele>682.1</ele>
        <time>2017-07-31T10:44:23Z</time>
      </trkpt>
      <trkpt lat="42.45848" lon="0.04404">
        <ele>681.8</ele>
        <time>2017-07-31T10:44:24Z</time>
      </trkpt>
      <trkpt lat="42.45844" lon="0.04402">
        <ele>681.7</ele>
        <time>2017-07-31T10:44:25Z</time>
      </trkpt>
      <trkpt lat="42.45841" lon="0.044">
        <ele>681.6</ele>
        <time>2017-07-31T10:44:26Z</time>
      </trkpt>
      <trkpt lat="42.45838" lon="0.04397">
        <ele>681.7</ele>
        <time>2017-07-31T10:44:27Z</time>
      </trkpt>
      <trkpt lat="42.45836" lon="0.04396">
        <ele>681.7</ele>
        <time>2017-07-31T10:44:28Z</time>
      </trkpt>
      <trkpt lat="42.45831" lon="0.04392">
        <ele>681.8</ele>
        <time>2017-07-31T10:44:30Z</time>
      </trkpt>
      <trkpt lat="42.45827" lon="0.04388">
        <ele>681.9</ele>
        <time>2017-07-31T10:44:32Z</time>
      </trkpt>
      <trkpt lat="42.45823" lon="0.04384">
        <ele>681.8</ele>
        <time>2017-07-31T10:44:34Z</time>
      </trkpt>
      <trkpt lat="42.45818" lon="0.04382">
        <ele>681.6</ele>
        <time>2017-07-31T10:44:36Z</time>
      </trkpt>
      <trkpt lat="42.45814" lon="0.04385">
        <ele>681.5</ele>
        <time>2017-07-31T10:44:38Z</time>
      </trkpt>
      <trkpt lat="42.45813" lon="0.04389">
        <ele>681.4</ele>
        <time>2017-07-31T10:44:39Z</time>
      </trkpt>
      <trkpt lat="42.45813" lon="0.04393">
        <ele>681.4</ele>
        <time>2017-07-31T10:44:40Z</time>
      </trkpt>
      <trkpt lat="42.45813" lon="0.04398">
        <ele>681.3</ele>
        <time>2017-07-31T10:44:41Z</time>
      </trkpt>
      <trkpt lat="42.45814" lon="0.04402">
        <ele>681.2</ele>
        <time>2017-07-31T10:44:42Z</time>
      </trkpt>
      <trkpt lat="42.45815" lon="0.04406">
        <ele>681.2</ele>
        <time>2017-07-31T10:44:43Z</time>
      </trkpt>
      <trkpt lat="42.45816" lon="0.04409">
        <ele>681.1</ele>
        <time>2017-07-31T10:44:44Z</time>
      </trkpt>
      <trkpt lat="42.45818" lon="0.04416">
        <ele>681</ele>
        <time>2017-07-31T10:44:46Z</time>
      </trkpt>
      <trkpt lat="42.4582" lon="0.04423">
        <ele>680.8</ele>
        <time>2017-07-31T10:44:48Z</time>
      </trkpt>
      <trkpt lat="42.45821" lon="0.04426">
        <ele>680.8</ele>
        <time>2017-07-31T10:44:49Z</time>
      </trkpt>
      <trkpt lat="42.45823" lon="0.0443">
        <ele>680.7</ele>
        <time>2017-07-31T10:44:50Z</time>
      </trkpt>
      <trkpt lat="42.45824" lon="0.04434">
        <ele>680.6</ele>
        <time>2017-07-31T10:44:51Z</time>
      </trkpt>
      <trkpt lat="42.45826" lon="0.04438">
        <ele>680.4</ele>
        <time>2017-07-31T10:44:52Z</time>
      </trkpt>
      <trkpt lat="42.45827" lon="0.04442">
        <ele>680.4</ele>
        <time>2017-07-31T10:44:53Z</time>
      </trkpt>
      <trkpt lat="42.45829" lon="0.04446">
        <ele>680.3</ele>
        <time>2017-07-31T10:44:54Z</time>
      </trkpt>
      <trkpt lat="42.4583" lon="0.04449">
        <ele>680.2</ele>
        <time>2017-07-31T10:44:55Z</time>
      </trkpt>
      <trkpt lat="42.45833" lon="0.04454">
        <ele>680.1</ele>
        <time>2017-07-31T10:44:57Z</time>
      </trkpt>
      <trkpt lat="42.45835" lon="0.04459">
        <ele>680</ele>
        <time>2017-07-31T10:44:59Z</time>
      </trkpt>
      <trkpt lat="42.45837" lon="0.04463">
        <ele>680.1</ele>
        <time>2017-07-31T10:45:02Z</time>
      </trkpt>
      <trkpt lat="42.45839" lon="0.04465">
        <ele>680.1</ele>
        <time>2017-07-31T10:45:10Z</time>
      </trkpt>
      <trkpt lat="42.45837" lon="0.04468">
        <ele>680.1</ele>
        <time>2017-07-31T10:45:14Z</time>
      </trkpt>
      <trkpt lat="42.45836" lon="0.04473">
        <ele>680.1</ele>
        <time>2017-07-31T10:45:17Z</time>
      </trkpt>
      <trkpt lat="42.45833" lon="0.04478">
        <ele>680.2</ele>
        <time>2017-07-31T10:45:19Z</time>
      </trkpt>
      <trkpt lat="42.45832" lon="0.04481">
        <ele>680.2</ele>
        <time>2017-07-31T10:45:20Z</time>
      </trkpt>
      <trkpt lat="42.45831" lon="0.04485">
        <ele>680.2</ele>
        <time>2017-07-31T10:45:21Z</time>
      </trkpt>
      <trkpt lat="42.4583" lon="0.0449">
        <ele>680.3</ele>
        <time>2017-07-31T10:45:22Z</time>
      </trkpt>
      <trkpt lat="42.4583" lon="0.04494">
        <ele>680.3</ele>
        <time>2017-07-31T10:45:23Z</time>
      </trkpt>
      <trkpt lat="42.4583" lon="0.04499">
        <ele>680.3</ele>
        <time>2017-07-31T10:45:24Z</time>
      </trkpt>
      <trkpt lat="42.4583" lon="0.04504">
        <ele>680.3</ele>
        <time>2017-07-31T10:45:25Z</time>
      </trkpt>
      <trkpt lat="42.4583" lon="0.04508">
        <ele>680.3</ele>
        <time>2017-07-31T10:45:26Z</time>
      </trkpt>
      <trkpt lat="42.4583" lon="0.04512">
        <ele>680.3</ele>
        <time>2017-07-31T10:45:27Z</time>
      </trkpt>
      <trkpt lat="42.4583" lon="0.04516">
        <ele>680.4</ele>
        <time>2017-07-31T10:45:28Z</time>
      </trkpt>
      <trkpt lat="42.45831" lon="0.0452">
        <ele>680.4</ele>
        <time>2017-07-31T10:45:29Z</time>
      </trkpt>
      <trkpt lat="42.45831" lon="0.04525">
        <ele>680.4</ele>
        <time>2017-07-31T10:45:30Z</time>
      </trkpt>
      <trkpt lat="42.45831" lon="0.0453">
        <ele>680.4</ele>
        <time>2017-07-31T10:45:31Z</time>
      </trkpt>
      <trkpt lat="42.45831" lon="0.04536">
        <ele>680.4</ele>
        <time>2017-07-31T10:45:32Z</time>
      </trkpt>
      <trkpt lat="42.45831" lon="0.04542">
        <ele>680.4</ele>
        <time>2017-07-31T10:45:33Z</time>
      </trkpt>
      <trkpt lat="42.45832" lon="0.04549">
        <ele>680.3</ele>
        <time>2017-07-31T10:45:34Z</time>
      </trkpt>
      <trkpt lat="42.45832" lon="0.04556">
        <ele>680.2</ele>
        <time>2017-07-31T10:45:35Z</time>
      </trkpt>
      <trkpt lat="42.45832" lon="0.04563">
        <ele>680.1</ele>
        <time>2017-07-31T10:45:36Z</time>
      </trkpt>
      <trkpt lat="42.45833" lon="0.0457">
        <ele>680</ele>
        <time>2017-07-31T10:45:37Z</time>
      </trkpt>
      <trkpt lat="42.45833" lon="0.04577">
        <ele>679.9</ele>
        <time>2017-07-31T10:45:38Z</time>
      </trkpt>
      <trkpt lat="42.45832" lon="0.04583">
        <ele>679.6</ele>
        <time>2017-07-31T10:45:39Z</time>
      </trkpt>
      <trkpt lat="42.45832" lon="0.04589">
        <ele>679.2</ele>
        <time>2017-07-31T10:45:40Z</time>
      </trkpt>
      <trkpt lat="42.45831" lon="0.04595">
        <ele>678.8</ele>
        <time>2017-07-31T10:45:41Z</time>
      </trkpt>
      <trkpt lat="42.4583" lon="0.04599">
        <ele>678.6</ele>
        <time>2017-07-31T10:45:42Z</time>
      </trkpt>
      <trkpt lat="42.45829" lon="0.04603">
        <ele>678.4</ele>
        <time>2017-07-31T10:45:43Z</time>
      </trkpt>
      <trkpt lat="42.45826" lon="0.04606">
        <ele>678.2</ele>
        <time>2017-07-31T10:45:44Z</time>
      </trkpt>
      <trkpt lat="42.45823" lon="0.04608">
        <ele>678</ele>
        <time>2017-07-31T10:45:45Z</time>
      </trkpt>
      <trkpt lat="42.45819" lon="0.04609">
        <ele>677.6</ele>
        <time>2017-07-31T10:45:46Z</time>
      </trkpt>
      <trkpt lat="42.45815" lon="0.04609">
        <ele>677.3</ele>
        <time>2017-07-31T10:45:47Z</time>
      </trkpt>
      <trkpt lat="42.4581" lon="0.04607">
        <ele>676.9</ele>
        <time>2017-07-31T10:45:48Z</time>
      </trkpt>
      <trkpt lat="42.45804" lon="0.04605">
        <ele>676.5</ele>
        <time>2017-07-31T10:45:49Z</time>
      </trkpt>
      <trkpt lat="42.458" lon="0.04603">
        <ele>676.1</ele>
        <time>2017-07-31T10:45:50Z</time>
      </trkpt>
      <trkpt lat="42.45795" lon="0.04602">
        <ele>675.7</ele>
        <time>2017-07-31T10:45:51Z</time>
      </trkpt>
      <trkpt lat="42.4579" lon="0.04603">
        <ele>675.4</ele>
        <time>2017-07-31T10:45:52Z</time>
      </trkpt>
      <trkpt lat="42.45787" lon="0.04605">
        <ele>675</ele>
        <time>2017-07-31T10:45:53Z</time>
      </trkpt>
      <trkpt lat="42.45784" lon="0.04609">
        <ele>674.8</ele>
        <time>2017-07-31T10:45:54Z</time>
      </trkpt>
      <trkpt lat="42.45784" lon="0.04613">
        <ele>674.7</ele>
        <time>2017-07-31T10:45:55Z</time>
      </trkpt>
      <trkpt lat="42.45784" lon="0.04617">
        <ele>674.6</ele>
        <time>2017-07-31T10:45:56Z</time>
      </trkpt>
      <trkpt lat="42.45786" lon="0.04622">
        <ele>674.5</ele>
        <time>2017-07-31T10:45:57Z</time>
      </trkpt>
      <trkpt lat="42.45788" lon="0.04627">
        <ele>674.5</ele>
        <time>2017-07-31T10:45:58Z</time>
      </trkpt>
      <trkpt lat="42.4579" lon="0.04631">
        <ele>674.4</ele>
        <time>2017-07-31T10:45:59Z</time>
      </trkpt>
      <trkpt lat="42.45793" lon="0.04636">
        <ele>674.4</ele>
        <time>2017-07-31T10:46:00Z</time>
      </trkpt>
      <trkpt lat="42.45795" lon="0.04641">
        <ele>674.3</ele>
        <time>2017-07-31T10:46:01Z</time>
      </trkpt>
      <trkpt lat="42.45796" lon="0.04647">
        <ele>674.3</ele>
        <time>2017-07-31T10:46:02Z</time>
      </trkpt>
      <trkpt lat="42.45796" lon="0.04652">
        <ele>674.1</ele>
        <time>2017-07-31T10:46:03Z</time>
      </trkpt>
      <trkpt lat="42.45796" lon="0.04658">
        <ele>674</ele>
        <time>2017-07-31T10:46:04Z</time>
      </trkpt>
      <trkpt lat="42.45794" lon="0.04665">
        <ele>673.8</ele>
        <time>2017-07-31T10:46:05Z</time>
      </trkpt>
      <trkpt lat="42.45792" lon="0.04673">
        <ele>673.4</ele>
        <time>2017-07-31T10:46:06Z</time>
      </trkpt>
      <trkpt lat="42.45789" lon="0.0468">
        <ele>673</ele>
        <time>2017-07-31T10:46:07Z</time>
      </trkpt>
      <trkpt lat="42.45786" lon="0.04687">
        <ele>672.4</ele>
        <time>2017-07-31T10:46:08Z</time>
      </trkpt>
      <trkpt lat="42.45783" lon="0.04693">
        <ele>671.9</ele>
        <time>2017-07-31T10:46:09Z</time>
      </trkpt>
      <trkpt lat="42.4578" lon="0.04698">
        <ele>671.5</ele>
        <time>2017-07-31T10:46:10Z</time>
      </trkpt>
      <trkpt lat="42.45777" lon="0.04702">
        <ele>671.1</ele>
        <time>2017-07-31T10:46:11Z</time>
      </trkpt>
      <trkpt lat="42.45773" lon="0.04706">
        <ele>670.7</ele>
        <time>2017-07-31T10:46:12Z</time>
      </trkpt>
      <trkpt lat="42.45769" lon="0.04708">
        <ele>670.3</ele>
        <time>2017-07-31T10:46:13Z</time>
      </trkpt>
      <trkpt lat="42.45765" lon="0.0471">
        <ele>670</ele>
        <time>2017-07-31T10:46:14Z</time>
      </trkpt>
      <trkpt lat="42.45759" lon="0.04711">
        <ele>669.6</ele>
        <time>2017-07-31T10:46:15Z</time>
      </trkpt>
      <trkpt lat="42.45754" lon="0.04709">
        <ele>669.2</ele>
        <time>2017-07-31T10:46:16Z</time>
      </trkpt>
      <trkpt lat="42.45749" lon="0.04707">
        <ele>668.9</ele>
        <time>2017-07-31T10:46:17Z</time>
      </trkpt>
      <trkpt lat="42.45745" lon="0.04704">
        <ele>668.6</ele>
        <time>2017-07-31T10:46:18Z</time>
      </trkpt>
      <trkpt lat="42.4574" lon="0.047">
        <ele>668.5</ele>
        <time>2017-07-31T10:46:19Z</time>
      </trkpt>
      <trkpt lat="42.45735" lon="0.04697">
        <ele>668.3</ele>
        <time>2017-07-31T10:46:20Z</time>
      </trkpt>
      <trkpt lat="42.45731" lon="0.04694">
        <ele>668.3</ele>
        <time>2017-07-31T10:46:21Z</time>
      </trkpt>
      <trkpt lat="42.45726" lon="0.04691">
        <ele>668.2</ele>
        <time>2017-07-31T10:46:22Z</time>
      </trkpt>
      <trkpt lat="42.45722" lon="0.04689">
        <ele>668.1</ele>
        <time>2017-07-31T10:46:23Z</time>
      </trkpt>
      <trkpt lat="42.45717" lon="0.04687">
        <ele>667.9</ele>
        <time>2017-07-31T10:46:24Z</time>
      </trkpt>
      <trkpt lat="42.45713" lon="0.04687">
        <ele>667.8</ele>
        <time>2017-07-31T10:46:25Z</time>
      </trkpt>
      <trkpt lat="42.45708" lon="0.04689">
        <ele>667.6</ele>
        <time>2017-07-31T10:46:26Z</time>
      </trkpt>
      <trkpt lat="42.45703" lon="0.04693">
        <ele>667.4</ele>
        <time>2017-07-31T10:46:27Z</time>
      </trkpt>
      <trkpt lat="42.45701" lon="0.04698">
        <ele>667.1</ele>
        <time>2017-07-31T10:46:28Z</time>
      </trkpt>
      <trkpt lat="42.45701" lon="0.04704">
        <ele>666.8</ele>
        <time>2017-07-31T10:46:29Z</time>
      </trkpt>
      <trkpt lat="42.45703" lon="0.04709">
        <ele>666.5</ele>
        <time>2017-07-31T10:46:30Z</time>
      </trkpt>
      <trkpt lat="42.45704" lon="0.04715">
        <ele>666.2</ele>
        <time>2017-07-31T10:46:31Z</time>
      </trkpt>
      <trkpt lat="42.45704" lon="0.0472">
        <ele>665.8</ele>
        <time>2017-07-31T10:46:32Z</time>
      </trkpt>
      <trkpt lat="42.45703" lon="0.04726">
        <ele>665.5</ele>
        <time>2017-07-31T10:46:33Z</time>
      </trkpt>
      <trkpt lat="42.45702" lon="0.04732">
        <ele>665.2</ele>
        <time>2017-07-31T10:46:34Z</time>
      </trkpt>
      <trkpt lat="42.45699" lon="0.04737">
        <ele>664.7</ele>
        <time>2017-07-31T10:46:35Z</time>
      </trkpt>
      <trkpt lat="42.45695" lon="0.04743">
        <ele>664.1</ele>
        <time>2017-07-31T10:46:36Z</time>
      </trkpt>
      <trkpt lat="42.45689" lon="0.04749">
        <ele>663.3</ele>
        <time>2017-07-31T10:46:37Z</time>
      </trkpt>
      <trkpt lat="42.45684" lon="0.04756">
        <ele>662.5</ele>
        <time>2017-07-31T10:46:38Z</time>
      </trkpt>
      <trkpt lat="42.45677" lon="0.04763">
        <ele>661.5</ele>
        <time>2017-07-31T10:46:39Z</time>
      </trkpt>
      <trkpt lat="42.4567" lon="0.04769">
        <ele>660.6</ele>
        <time>2017-07-31T10:46:40Z</time>
      </trkpt>
      <trkpt lat="42.45663" lon="0.04775">
        <ele>659.8</ele>
        <time>2017-07-31T10:46:41Z</time>
      </trkpt>
      <trkpt lat="42.45656" lon="0.04781">
        <ele>659.1</ele>
        <time>2017-07-31T10:46:42Z</time>
      </trkpt>
      <trkpt lat="42.4565" lon="0.04786">
        <ele>658.6</ele>
        <time>2017-07-31T10:46:43Z</time>
      </trkpt>
      <trkpt lat="42.45645" lon="0.04792">
        <ele>658.5</ele>
        <time>2017-07-31T10:46:44Z</time>
      </trkpt>
      <trkpt lat="42.45639" lon="0.04797">
        <ele>658.4</ele>
        <time>2017-07-31T10:46:45Z</time>
      </trkpt>
      <trkpt lat="42.45634" lon="0.048">
        <ele>658.6</ele>
        <time>2017-07-31T10:46:46Z</time>
      </trkpt>
      <trkpt lat="42.45631" lon="0.04803">
        <ele>658.7</ele>
        <time>2017-07-31T10:46:47Z</time>
      </trkpt>
      <trkpt lat="42.45627" lon="0.04806">
        <ele>659</ele>
        <time>2017-07-31T10:46:48Z</time>
      </trkpt>
      <trkpt lat="42.45624" lon="0.0481">
        <ele>659.5</ele>
        <time>2017-07-31T10:46:49Z</time>
      </trkpt>
      <trkpt lat="42.4562" lon="0.04814">
        <ele>660</ele>
        <time>2017-07-31T10:46:50Z</time>
      </trkpt>
      <trkpt lat="42.45617" lon="0.04819">
        <ele>660.3</ele>
        <time>2017-07-31T10:46:51Z</time>
      </trkpt>
      <trkpt lat="42.45614" lon="0.04824">
        <ele>660.5</ele>
        <time>2017-07-31T10:46:52Z</time>
      </trkpt>
      <trkpt lat="42.4561" lon="0.04829">
        <ele>660.6</ele>
        <time>2017-07-31T10:46:53Z</time>
      </trkpt>
      <trkpt lat="42.45606" lon="0.04836">
        <ele>660.6</ele>
        <time>2017-07-31T10:46:54Z</time>
      </trkpt>
      <trkpt lat="42.45602" lon="0.04843">
        <ele>660.5</ele>
        <time>2017-07-31T10:46:55Z</time>
      </trkpt>
      <trkpt lat="42.45597" lon="0.04849">
        <ele>660.3</ele>
        <time>2017-07-31T10:46:56Z</time>
      </trkpt>
      <trkpt lat="42.45593" lon="0.04856">
        <ele>660.1</ele>
        <time>2017-07-31T10:46:57Z</time>
      </trkpt>
      <trkpt lat="42.4559" lon="0.04864">
        <ele>659.8</ele>
        <time>2017-07-31T10:46:58Z</time>
      </trkpt>
      <trkpt lat="42.45588" lon="0.04871">
        <ele>659.3</ele>
        <time>2017-07-31T10:46:59Z</time>
      </trkpt>
      <trkpt lat="42.45587" lon="0.04879">
        <ele>658.8</ele>
        <time>2017-07-31T10:47:00Z</time>
      </trkpt>
      <trkpt lat="42.45586" lon="0.04885">
        <ele>658.2</ele>
        <time>2017-07-31T10:47:01Z</time>
      </trkpt>
      <trkpt lat="42.45586" lon="0.04892">
        <ele>657.7</ele>
        <time>2017-07-31T10:47:02Z</time>
      </trkpt>
      <trkpt lat="42.45584" lon="0.04898">
        <ele>657.2</ele>
        <time>2017-07-31T10:47:03Z</time>
      </trkpt>
      <trkpt lat="42.45583" lon="0.04904">
        <ele>656.8</ele>
        <time>2017-07-31T10:47:04Z</time>
      </trkpt>
      <trkpt lat="42.45583" lon="0.0491">
        <ele>656.3</ele>
        <time>2017-07-31T10:47:05Z</time>
      </trkpt>
      <trkpt lat="42.45582" lon="0.04915">
        <ele>655.9</ele>
        <time>2017-07-31T10:47:06Z</time>
      </trkpt>
      <trkpt lat="42.45583" lon="0.04919">
        <ele>655.5</ele>
        <time>2017-07-31T10:47:07Z</time>
      </trkpt>
      <trkpt lat="42.45586" lon="0.04923">
        <ele>655</ele>
        <time>2017-07-31T10:47:09Z</time>
      </trkpt>
      <trkpt lat="42.4559" lon="0.04921">
        <ele>654.4</ele>
        <time>2017-07-31T10:47:11Z</time>
      </trkpt>
      <trkpt lat="42.45593" lon="0.04918">
        <ele>654.1</ele>
        <time>2017-07-31T10:47:12Z</time>
      </trkpt>
      <trkpt lat="42.45596" lon="0.04914">
        <ele>653.6</ele>
        <time>2017-07-31T10:47:14Z</time>
      </trkpt>
      <trkpt lat="42.456" lon="0.0491">
        <ele>653.1</ele>
        <time>2017-07-31T10:47:16Z</time>
      </trkpt>
      <trkpt lat="42.45604" lon="0.04909">
        <ele>652.6</ele>
        <time>2017-07-31T10:47:18Z</time>
      </trkpt>
      <trkpt lat="42.45607" lon="0.0491">
        <ele>652.3</ele>
        <time>2017-07-31T10:47:19Z</time>
      </trkpt>
      <trkpt lat="42.4561" lon="0.04912">
        <ele>651.9</ele>
        <time>2017-07-31T10:47:20Z</time>
      </trkpt>
      <trkpt lat="42.45612" lon="0.04915">
        <ele>651.6</ele>
        <time>2017-07-31T10:47:21Z</time>
      </trkpt>
      <trkpt lat="42.45614" lon="0.04919">
        <ele>651.2</ele>
        <time>2017-07-31T10:47:22Z</time>
      </trkpt>
      <trkpt lat="42.45614" lon="0.04924">
        <ele>650.9</ele>
        <time>2017-07-31T10:47:23Z</time>
      </trkpt>
      <trkpt lat="42.45614" lon="0.0493">
        <ele>650.4</ele>
        <time>2017-07-31T10:47:24Z</time>
      </trkpt>
      <trkpt lat="42.45609" lon="0.04938">
        <ele>649.7</ele>
        <time>2017-07-31T10:47:25Z</time>
      </trkpt>
      <trkpt lat="42.45607" lon="0.04944">
        <ele>649.1</ele>
        <time>2017-07-31T10:47:26Z</time>
      </trkpt>
      <trkpt lat="42.45603" lon="0.0495">
        <ele>648.6</ele>
        <time>2017-07-31T10:47:27Z</time>
      </trkpt>
      <trkpt lat="42.45598" lon="0.04956">
        <ele>647.9</ele>
        <time>2017-07-31T10:47:28Z</time>
      </trkpt>
      <trkpt lat="42.45594" lon="0.04964">
        <ele>647.2</ele>
        <time>2017-07-31T10:47:29Z</time>
      </trkpt>
      <trkpt lat="42.4559" lon="0.04971">
        <ele>646.5</ele>
        <time>2017-07-31T10:47:30Z</time>
      </trkpt>
      <trkpt lat="42.45585" lon="0.0498">
        <ele>645.7</ele>
        <time>2017-07-31T10:47:31Z</time>
      </trkpt>
      <trkpt lat="42.4558" lon="0.04987">
        <ele>644.9</ele>
        <time>2017-07-31T10:47:32Z</time>
      </trkpt>
      <trkpt lat="42.45577" lon="0.04996">
        <ele>644.1</ele>
        <time>2017-07-31T10:47:33Z</time>
      </trkpt>
      <trkpt lat="42.45575" lon="0.05006">
        <ele>643.2</ele>
        <time>2017-07-31T10:47:34Z</time>
      </trkpt>
      <trkpt lat="42.45572" lon="0.05014">
        <ele>642.5</ele>
        <time>2017-07-31T10:47:35Z</time>
      </trkpt>
      <trkpt lat="42.45571" lon="0.05024">
        <ele>641.7</ele>
        <time>2017-07-31T10:47:36Z</time>
      </trkpt>
      <trkpt lat="42.45569" lon="0.05033">
        <ele>641.1</ele>
        <time>2017-07-31T10:47:37Z</time>
      </trkpt>
      <trkpt lat="42.45568" lon="0.05042">
        <ele>640.5</ele>
        <time>2017-07-31T10:47:38Z</time>
      </trkpt>
      <trkpt lat="42.45566" lon="0.05049">
        <ele>640</ele>
        <time>2017-07-31T10:47:39Z</time>
      </trkpt>
      <trkpt lat="42.45564" lon="0.05056">
        <ele>639.7</ele>
        <time>2017-07-31T10:47:40Z</time>
      </trkpt>
      <trkpt lat="42.45561" lon="0.05061">
        <ele>639.6</ele>
        <time>2017-07-31T10:47:41Z</time>
      </trkpt>
      <trkpt lat="42.45557" lon="0.05065">
        <ele>639.5</ele>
        <time>2017-07-31T10:47:42Z</time>
      </trkpt>
      <trkpt lat="42.45552" lon="0.05068">
        <ele>639.6</ele>
        <time>2017-07-31T10:47:43Z</time>
      </trkpt>
      <trkpt lat="42.45548" lon="0.05072">
        <ele>639.7</ele>
        <time>2017-07-31T10:47:44Z</time>
      </trkpt>
      <trkpt lat="42.45544" lon="0.05076">
        <ele>640</ele>
        <time>2017-07-31T10:47:45Z</time>
      </trkpt>
      <trkpt lat="42.45541" lon="0.05081">
        <ele>640.3</ele>
        <time>2017-07-31T10:47:46Z</time>
      </trkpt>
      <trkpt lat="42.45539" lon="0.05085">
        <ele>640.6</ele>
        <time>2017-07-31T10:47:47Z</time>
      </trkpt>
      <trkpt lat="42.45538" lon="0.0509">
        <ele>641</ele>
        <time>2017-07-31T10:47:48Z</time>
      </trkpt>
      <trkpt lat="42.45536" lon="0.05095">
        <ele>641.5</ele>
        <time>2017-07-31T10:47:49Z</time>
      </trkpt>
      <trkpt lat="42.45534" lon="0.05099">
        <ele>641.9</ele>
        <time>2017-07-31T10:47:50Z</time>
      </trkpt>
      <trkpt lat="42.45531" lon="0.05103">
        <ele>642.4</ele>
        <time>2017-07-31T10:47:51Z</time>
      </trkpt>
      <trkpt lat="42.45528" lon="0.05108">
        <ele>643</ele>
        <time>2017-07-31T10:47:52Z</time>
      </trkpt>
      <trkpt lat="42.45525" lon="0.05113">
        <ele>643.4</ele>
        <time>2017-07-31T10:47:53Z</time>
      </trkpt>
      <trkpt lat="42.45521" lon="0.0512">
        <ele>643.6</ele>
        <time>2017-07-31T10:47:54Z</time>
      </trkpt>
      <trkpt lat="42.45519" lon="0.05125">
        <ele>643.7</ele>
        <time>2017-07-31T10:47:55Z</time>
      </trkpt>
      <trkpt lat="42.45517" lon="0.05131">
        <ele>643.8</ele>
        <time>2017-07-31T10:47:56Z</time>
      </trkpt>
      <trkpt lat="42.45516" lon="0.05136">
        <ele>643.9</ele>
        <time>2017-07-31T10:47:57Z</time>
      </trkpt>
      <trkpt lat="42.45514" lon="0.05141">
        <ele>643.8</ele>
        <time>2017-07-31T10:47:58Z</time>
      </trkpt>
      <trkpt lat="42.45512" lon="0.05145">
        <ele>643.6</ele>
        <time>2017-07-31T10:47:59Z</time>
      </trkpt>
      <trkpt lat="42.45509" lon="0.05149">
        <ele>643.4</ele>
        <time>2017-07-31T10:48:00Z</time>
      </trkpt>
      <trkpt lat="42.45506" lon="0.05152">
        <ele>643.1</ele>
        <time>2017-07-31T10:48:01Z</time>
      </trkpt>
      <trkpt lat="42.45502" lon="0.05156">
        <ele>642.7</ele>
        <time>2017-07-31T10:48:02Z</time>
      </trkpt>
      <trkpt lat="42.45498" lon="0.05157">
        <ele>642.4</ele>
        <time>2017-07-31T10:48:03Z</time>
      </trkpt>
      <trkpt lat="42.45491" lon="0.05158">
        <ele>641.8</ele>
        <time>2017-07-31T10:48:04Z</time>
      </trkpt>
      <trkpt lat="42.45485" lon="0.05158">
        <ele>641.3</ele>
        <time>2017-07-31T10:48:05Z</time>
      </trkpt>
      <trkpt lat="42.45477" lon="0.05159">
        <ele>640.6</ele>
        <time>2017-07-31T10:48:06Z</time>
      </trkpt>
      <trkpt lat="42.45469" lon="0.05158">
        <ele>639.8</ele>
        <time>2017-07-31T10:48:07Z</time>
      </trkpt>
      <trkpt lat="42.45462" lon="0.05157">
        <ele>638.9</ele>
        <time>2017-07-31T10:48:08Z</time>
      </trkpt>
      <trkpt lat="42.45455" lon="0.05156">
        <ele>638.3</ele>
        <time>2017-07-31T10:48:09Z</time>
      </trkpt>
      <trkpt lat="42.45449" lon="0.05155">
        <ele>637.9</ele>
        <time>2017-07-31T10:48:10Z</time>
      </trkpt>
      <trkpt lat="42.45443" lon="0.05154">
        <ele>637.6</ele>
        <time>2017-07-31T10:48:11Z</time>
      </trkpt>
      <trkpt lat="42.45438" lon="0.05156">
        <ele>637.2</ele>
        <time>2017-07-31T10:48:12Z</time>
      </trkpt>
      <trkpt lat="42.45435" lon="0.0516">
        <ele>636.9</ele>
        <time>2017-07-31T10:48:13Z</time>
      </trkpt>
      <trkpt lat="42.45432" lon="0.05165">
        <ele>636.6</ele>
        <time>2017-07-31T10:48:14Z</time>
      </trkpt>
      <trkpt lat="42.4543" lon="0.0517">
        <ele>636.3</ele>
        <time>2017-07-31T10:48:15Z</time>
      </trkpt>
      <trkpt lat="42.45428" lon="0.05175">
        <ele>636.2</ele>
        <time>2017-07-31T10:48:16Z</time>
      </trkpt>
      <trkpt lat="42.45426" lon="0.0518">
        <ele>636.1</ele>
        <time>2017-07-31T10:48:17Z</time>
      </trkpt>
      <trkpt lat="42.45424" lon="0.05186">
        <ele>636</ele>
        <time>2017-07-31T10:48:18Z</time>
      </trkpt>
      <trkpt lat="42.45421" lon="0.05192">
        <ele>635.9</ele>
        <time>2017-07-31T10:48:19Z</time>
      </trkpt>
      <trkpt lat="42.45419" lon="0.05198">
        <ele>635.7</ele>
        <time>2017-07-31T10:48:20Z</time>
      </trkpt>
      <trkpt lat="42.45417" lon="0.05204">
        <ele>635.5</ele>
        <time>2017-07-31T10:48:21Z</time>
      </trkpt>
      <trkpt lat="42.45414" lon="0.05211">
        <ele>635.3</ele>
        <time>2017-07-31T10:48:22Z</time>
      </trkpt>
      <trkpt lat="42.45411" lon="0.05218">
        <ele>634.9</ele>
        <time>2017-07-31T10:48:23Z</time>
      </trkpt>
      <trkpt lat="42.45407" lon="0.05227">
        <ele>634.5</ele>
        <time>2017-07-31T10:48:24Z</time>
      </trkpt>
      <trkpt lat="42.45402" lon="0.05232">
        <ele>634</ele>
        <time>2017-07-31T10:48:25Z</time>
      </trkpt>
      <trkpt lat="42.45397" lon="0.05238">
        <ele>633.6</ele>
        <time>2017-07-31T10:48:26Z</time>
      </trkpt>
      <trkpt lat="42.45392" lon="0.05246">
        <ele>633</ele>
        <time>2017-07-31T10:48:27Z</time>
      </trkpt>
      <trkpt lat="42.45387" lon="0.05253">
        <ele>632.5</ele>
        <time>2017-07-31T10:48:28Z</time>
      </trkpt>
      <trkpt lat="42.45382" lon="0.05259">
        <ele>632</ele>
        <time>2017-07-31T10:48:29Z</time>
      </trkpt>
      <trkpt lat="42.45377" lon="0.05265">
        <ele>631.4</ele>
        <time>2017-07-31T10:48:30Z</time>
      </trkpt>
      <trkpt lat="42.45372" lon="0.05273">
        <ele>630.7</ele>
        <time>2017-07-31T10:48:31Z</time>
      </trkpt>
      <trkpt lat="42.45368" lon="0.05283">
        <ele>630</ele>
        <time>2017-07-31T10:48:32Z</time>
      </trkpt>
      <trkpt lat="42.45363" lon="0.05291">
        <ele>629.2</ele>
        <time>2017-07-31T10:48:33Z</time>
      </trkpt>
      <trkpt lat="42.45358" lon="0.05301">
        <ele>628.4</ele>
        <time>2017-07-31T10:48:34Z</time>
      </trkpt>
      <trkpt lat="42.45354" lon="0.05311">
        <ele>627.5</ele>
        <time>2017-07-31T10:48:35Z</time>
      </trkpt>
      <trkpt lat="42.45349" lon="0.0532">
        <ele>626.5</ele>
        <time>2017-07-31T10:48:36Z</time>
      </trkpt>
      <trkpt lat="42.45344" lon="0.05329">
        <ele>625.6</ele>
        <time>2017-07-31T10:48:37Z</time>
      </trkpt>
      <trkpt lat="42.45337" lon="0.05333">
        <ele>624.8</ele>
        <time>2017-07-31T10:48:38Z</time>
      </trkpt>
      <trkpt lat="42.45331" lon="0.05337">
        <ele>624.4</ele>
        <time>2017-07-31T10:48:39Z</time>
      </trkpt>
      <trkpt lat="42.45326" lon="0.05344">
        <ele>624</ele>
        <time>2017-07-31T10:48:40Z</time>
      </trkpt>
      <trkpt lat="42.4532" lon="0.05347">
        <ele>624</ele>
        <time>2017-07-31T10:48:41Z</time>
      </trkpt>
      <trkpt lat="42.45314" lon="0.05351">
        <ele>624.2</ele>
        <time>2017-07-31T10:48:42Z</time>
      </trkpt>
      <trkpt lat="42.45309" lon="0.05355">
        <ele>624.5</ele>
        <time>2017-07-31T10:48:43Z</time>
      </trkpt>
      <trkpt lat="42.45304" lon="0.05358">
        <ele>624.7</ele>
        <time>2017-07-31T10:48:44Z</time>
      </trkpt>
      <trkpt lat="42.453" lon="0.05362">
        <ele>625</ele>
        <time>2017-07-31T10:48:45Z</time>
      </trkpt>
      <trkpt lat="42.45295" lon="0.05362">
        <ele>625.5</ele>
        <time>2017-07-31T10:48:46Z</time>
      </trkpt>
      <trkpt lat="42.45291" lon="0.05363">
        <ele>626.1</ele>
        <time>2017-07-31T10:48:47Z</time>
      </trkpt>
      <trkpt lat="42.45286" lon="0.05365">
        <ele>626.8</ele>
        <time>2017-07-31T10:48:48Z</time>
      </trkpt>
      <trkpt lat="42.45281" lon="0.05366">
        <ele>627.3</ele>
        <time>2017-07-31T10:48:49Z</time>
      </trkpt>
      <trkpt lat="42.45277" lon="0.05368">
        <ele>628</ele>
        <time>2017-07-31T10:48:50Z</time>
      </trkpt>
      <trkpt lat="42.45272" lon="0.0537">
        <ele>628.5</ele>
        <time>2017-07-31T10:48:51Z</time>
      </trkpt>
      <trkpt lat="42.45269" lon="0.05373">
        <ele>628.7</ele>
        <time>2017-07-31T10:48:52Z</time>
      </trkpt>
      <trkpt lat="42.45266" lon="0.05375">
        <ele>628.7</ele>
        <time>2017-07-31T10:48:53Z</time>
      </trkpt>
      <trkpt lat="42.45262" lon="0.05377">
        <ele>628.8</ele>
        <time>2017-07-31T10:48:54Z</time>
      </trkpt>
      <trkpt lat="42.45257" lon="0.05381">
        <ele>628.9</ele>
        <time>2017-07-31T10:48:55Z</time>
      </trkpt>
      <trkpt lat="42.45254" lon="0.05385">
        <ele>628.9</ele>
        <time>2017-07-31T10:48:56Z</time>
      </trkpt>
      <trkpt lat="42.45251" lon="0.0539">
        <ele>628.9</ele>
        <time>2017-07-31T10:48:57Z</time>
      </trkpt>
      <trkpt lat="42.45248" lon="0.05396">
        <ele>628.9</ele>
        <time>2017-07-31T10:48:58Z</time>
      </trkpt>
      <trkpt lat="42.45245" lon="0.05402">
        <ele>628.8</ele>
        <time>2017-07-31T10:48:59Z</time>
      </trkpt>
      <trkpt lat="42.45242" lon="0.05408">
        <ele>628.8</ele>
        <time>2017-07-31T10:49:00Z</time>
      </trkpt>
      <trkpt lat="42.45237" lon="0.05415">
        <ele>628.7</ele>
        <time>2017-07-31T10:49:01Z</time>
      </trkpt>
      <trkpt lat="42.45232" lon="0.05421">
        <ele>628.4</ele>
        <time>2017-07-31T10:49:02Z</time>
      </trkpt>
      <trkpt lat="42.45227" lon="0.05428">
        <ele>628.2</ele>
        <time>2017-07-31T10:49:03Z</time>
      </trkpt>
      <trkpt lat="42.45223" lon="0.05433">
        <ele>627.9</ele>
        <time>2017-07-31T10:49:04Z</time>
      </trkpt>
      <trkpt lat="42.45218" lon="0.05438">
        <ele>627.7</ele>
        <time>2017-07-31T10:49:05Z</time>
      </trkpt>
      <trkpt lat="42.45213" lon="0.05443">
        <ele>627.6</ele>
        <time>2017-07-31T10:49:06Z</time>
      </trkpt>
      <trkpt lat="42.45209" lon="0.05446">
        <ele>627.5</ele>
        <time>2017-07-31T10:49:07Z</time>
      </trkpt>
      <trkpt lat="42.45204" lon="0.0545">
        <ele>627.4</ele>
        <time>2017-07-31T10:49:08Z</time>
      </trkpt>
      <trkpt lat="42.452" lon="0.05454">
        <ele>627.3</ele>
        <time>2017-07-31T10:49:09Z</time>
      </trkpt>
      <trkpt lat="42.45194" lon="0.05456">
        <ele>627.1</ele>
        <time>2017-07-31T10:49:10Z</time>
      </trkpt>
      <trkpt lat="42.45188" lon="0.05457">
        <ele>626.9</ele>
        <time>2017-07-31T10:49:11Z</time>
      </trkpt>
      <trkpt lat="42.45181" lon="0.0546">
        <ele>626.6</ele>
        <time>2017-07-31T10:49:12Z</time>
      </trkpt>
      <trkpt lat="42.45175" lon="0.05462">
        <ele>626.2</ele>
        <time>2017-07-31T10:49:13Z</time>
      </trkpt>
      <trkpt lat="42.4517" lon="0.05465">
        <ele>625.8</ele>
        <time>2017-07-31T10:49:14Z</time>
      </trkpt>
      <trkpt lat="42.45164" lon="0.0547">
        <ele>625.3</ele>
        <time>2017-07-31T10:49:15Z</time>
      </trkpt>
      <trkpt lat="42.45158" lon="0.05474">
        <ele>624.8</ele>
        <time>2017-07-31T10:49:16Z</time>
      </trkpt>
      <trkpt lat="42.45152" lon="0.05481">
        <ele>624.3</ele>
        <time>2017-07-31T10:49:17Z</time>
      </trkpt>
      <trkpt lat="42.45146" lon="0.05487">
        <ele>623.7</ele>
        <time>2017-07-31T10:49:18Z</time>
      </trkpt>
      <trkpt lat="42.4514" lon="0.05492">
        <ele>623.1</ele>
        <time>2017-07-31T10:49:19Z</time>
      </trkpt>
      <trkpt lat="42.45135" lon="0.05496">
        <ele>622.7</ele>
        <time>2017-07-31T10:49:20Z</time>
      </trkpt>
      <trkpt lat="42.45129" lon="0.05498">
        <ele>622.2</ele>
        <time>2017-07-31T10:49:21Z</time>
      </trkpt>
      <trkpt lat="42.45123" lon="0.05499">
        <ele>621.9</ele>
        <time>2017-07-31T10:49:22Z</time>
      </trkpt>
      <trkpt lat="42.45116" lon="0.055">
        <ele>621.7</ele>
        <time>2017-07-31T10:49:23Z</time>
      </trkpt>
      <trkpt lat="42.45111" lon="0.05501">
        <ele>621.6</ele>
        <time>2017-07-31T10:49:24Z</time>
      </trkpt>
      <trkpt lat="42.45106" lon="0.05504">
        <ele>621.5</ele>
        <time>2017-07-31T10:49:25Z</time>
      </trkpt>
      <trkpt lat="42.45102" lon="0.05506">
        <ele>621.5</ele>
        <time>2017-07-31T10:49:26Z</time>
      </trkpt>
      <trkpt lat="42.45096" lon="0.05511">
        <ele>621.5</ele>
        <time>2017-07-31T10:49:27Z</time>
      </trkpt>
      <trkpt lat="42.4509" lon="0.05514">
        <ele>621.5</ele>
        <time>2017-07-31T10:49:28Z</time>
      </trkpt>
      <trkpt lat="42.45084" lon="0.05519">
        <ele>621.6</ele>
        <time>2017-07-31T10:49:29Z</time>
      </trkpt>
      <trkpt lat="42.45077" lon="0.05522">
        <ele>621.6</ele>
        <time>2017-07-31T10:49:30Z</time>
      </trkpt>
      <trkpt lat="42.4507" lon="0.05527">
        <ele>621.6</ele>
        <time>2017-07-31T10:49:31Z</time>
      </trkpt>
      <trkpt lat="42.45062" lon="0.05533">
        <ele>621.7</ele>
        <time>2017-07-31T10:49:32Z</time>
      </trkpt>
      <trkpt lat="42.45055" lon="0.05538">
        <ele>621.7</ele>
        <time>2017-07-31T10:49:33Z</time>
      </trkpt>
      <trkpt lat="42.45049" lon="0.05542">
        <ele>621.8</ele>
        <time>2017-07-31T10:49:34Z</time>
      </trkpt>
      <trkpt lat="42.45043" lon="0.05546">
        <ele>621.8</ele>
        <time>2017-07-31T10:49:35Z</time>
      </trkpt>
      <trkpt lat="42.45035" lon="0.05549">
        <ele>621.9</ele>
        <time>2017-07-31T10:49:36Z</time>
      </trkpt>
      <trkpt lat="42.45029" lon="0.05553">
        <ele>621.9</ele>
        <time>2017-07-31T10:49:37Z</time>
      </trkpt>
      <trkpt lat="42.45023" lon="0.05557">
        <ele>622</ele>
        <time>2017-07-31T10:49:38Z</time>
      </trkpt>
      <trkpt lat="42.45017" lon="0.05562">
        <ele>622</ele>
        <time>2017-07-31T10:49:39Z</time>
      </trkpt>
      <trkpt lat="42.45012" lon="0.05567">
        <ele>622.1</ele>
        <time>2017-07-31T10:49:40Z</time>
      </trkpt>
      <trkpt lat="42.45006" lon="0.05571">
        <ele>622.2</ele>
        <time>2017-07-31T10:49:41Z</time>
      </trkpt>
      <trkpt lat="42.45001" lon="0.05574">
        <ele>622.3</ele>
        <time>2017-07-31T10:49:42Z</time>
      </trkpt>
      <trkpt lat="42.44996" lon="0.05578">
        <ele>622.6</ele>
        <time>2017-07-31T10:49:43Z</time>
      </trkpt>
      <trkpt lat="42.44992" lon="0.0558">
        <ele>622.8</ele>
        <time>2017-07-31T10:49:44Z</time>
      </trkpt>
      <trkpt lat="42.44988" lon="0.05583">
        <ele>623.1</ele>
        <time>2017-07-31T10:49:45Z</time>
      </trkpt>
      <trkpt lat="42.44985" lon="0.05584">
        <ele>623.6</ele>
        <time>2017-07-31T10:49:46Z</time>
      </trkpt>
      <trkpt lat="42.44982" lon="0.05587">
        <ele>624.1</ele>
        <time>2017-07-31T10:49:48Z</time>
      </trkpt>
      <trkpt lat="42.44981" lon="0.05592">
        <ele>624.4</ele>
        <time>2017-07-31T10:49:50Z</time>
      </trkpt>
      <trkpt lat="42.44982" lon="0.05598">
        <ele>625</ele>
        <time>2017-07-31T10:49:52Z</time>
      </trkpt>
      <trkpt lat="42.44983" lon="0.05602">
        <ele>625</ele>
        <time>2017-07-31T10:49:53Z</time>
      </trkpt>
      <trkpt lat="42.44983" lon="0.05605">
        <ele>625</ele>
        <time>2017-07-31T10:49:54Z</time>
      </trkpt>
      <trkpt lat="42.44984" lon="0.0561">
        <ele>625</ele>
        <time>2017-07-31T10:49:55Z</time>
      </trkpt>
      <trkpt lat="42.44986" lon="0.05616">
        <ele>625</ele>
        <time>2017-07-31T10:49:56Z</time>
      </trkpt>
      <trkpt lat="42.44989" lon="0.05623">
        <ele>625</ele>
        <time>2017-07-31T10:49:57Z</time>
      </trkpt>
      <trkpt lat="42.44991" lon="0.0563">
        <ele>625</ele>
        <time>2017-07-31T10:49:58Z</time>
      </trkpt>
      <trkpt lat="42.44993" lon="0.05637">
        <ele>625</ele>
        <time>2017-07-31T10:49:59Z</time>
      </trkpt>
      <trkpt lat="42.44994" lon="0.05645">
        <ele>624.6</ele>
        <time>2017-07-31T10:50:00Z</time>
      </trkpt>
      <trkpt lat="42.44996" lon="0.05653">
        <ele>622.8</ele>
        <time>2017-07-31T10:50:01Z</time>
      </trkpt>
      <trkpt lat="42.44998" lon="0.05663">
        <ele>620.6</ele>
        <time>2017-07-31T10:50:02Z</time>
      </trkpt>
      <trkpt lat="42.45001" lon="0.05672">
        <ele>618.3</ele>
        <time>2017-07-31T10:50:03Z</time>
      </trkpt>
      <trkpt lat="42.45004" lon="0.0568">
        <ele>616.1</ele>
        <time>2017-07-31T10:50:04Z</time>
      </trkpt>
      <trkpt lat="42.45006" lon="0.05689">
        <ele>613.9</ele>
        <time>2017-07-31T10:50:05Z</time>
      </trkpt>
      <trkpt lat="42.45008" lon="0.05697">
        <ele>611.4</ele>
        <time>2017-07-31T10:50:06Z</time>
      </trkpt>
      <trkpt lat="42.4501" lon="0.05706">
        <ele>609.1</ele>
        <time>2017-07-31T10:50:07Z</time>
      </trkpt>
      <trkpt lat="42.45012" lon="0.05714">
        <ele>606.5</ele>
        <time>2017-07-31T10:50:08Z</time>
      </trkpt>
      <trkpt lat="42.45014" lon="0.05723">
        <ele>603.6</ele>
        <time>2017-07-31T10:50:09Z</time>
      </trkpt>
      <trkpt lat="42.45015" lon="0.0573">
        <ele>601.2</ele>
        <time>2017-07-31T10:50:10Z</time>
      </trkpt>
      <trkpt lat="42.45016" lon="0.05736">
        <ele>600.9</ele>
        <time>2017-07-31T10:50:11Z</time>
      </trkpt>
      <trkpt lat="42.45015" lon="0.05743">
        <ele>602.7</ele>
        <time>2017-07-31T10:50:12Z</time>
      </trkpt>
      <trkpt lat="42.45013" lon="0.05749">
        <ele>606.2</ele>
        <time>2017-07-31T10:50:13Z</time>
      </trkpt>
      <trkpt lat="42.4501" lon="0.05755">
        <ele>605.7</ele>
        <time>2017-07-31T10:50:14Z</time>
      </trkpt>
      <trkpt lat="42.45008" lon="0.05761">
        <ele>605.3</ele>
        <time>2017-07-31T10:50:15Z</time>
      </trkpt>
      <trkpt lat="42.45005" lon="0.05768">
        <ele>604.8</ele>
        <time>2017-07-31T10:50:16Z</time>
      </trkpt>
      <trkpt lat="42.45002" lon="0.05773">
        <ele>604.4</ele>
        <time>2017-07-31T10:50:17Z</time>
      </trkpt>
      <trkpt lat="42.44998" lon="0.05778">
        <ele>604</ele>
        <time>2017-07-31T10:50:18Z</time>
      </trkpt>
      <trkpt lat="42.44994" lon="0.05782">
        <ele>603.7</ele>
        <time>2017-07-31T10:50:19Z</time>
      </trkpt>
      <trkpt lat="42.4499" lon="0.0579">
        <ele>603.3</ele>
        <time>2017-07-31T10:50:20Z</time>
      </trkpt>
      <trkpt lat="42.44986" lon="0.05795">
        <ele>603.1</ele>
        <time>2017-07-31T10:50:21Z</time>
      </trkpt>
      <trkpt lat="42.44981" lon="0.05799">
        <ele>603</ele>
        <time>2017-07-31T10:50:22Z</time>
      </trkpt>
      <trkpt lat="42.44976" lon="0.05799">
        <ele>602.9</ele>
        <time>2017-07-31T10:50:23Z</time>
      </trkpt>
      <trkpt lat="42.44972" lon="0.05803">
        <ele>602.8</ele>
        <time>2017-07-31T10:50:24Z</time>
      </trkpt>
      <trkpt lat="42.44967" lon="0.05808">
        <ele>602.7</ele>
        <time>2017-07-31T10:50:25Z</time>
      </trkpt>
      <trkpt lat="42.44964" lon="0.05813">
        <ele>602.6</ele>
        <time>2017-07-31T10:50:26Z</time>
      </trkpt>
      <trkpt lat="42.4496" lon="0.05817">
        <ele>602.5</ele>
        <time>2017-07-31T10:50:27Z</time>
      </trkpt>
      <trkpt lat="42.44956" lon="0.05822">
        <ele>602.4</ele>
        <time>2017-07-31T10:50:28Z</time>
      </trkpt>
      <trkpt lat="42.44954" lon="0.05827">
        <ele>602.3</ele>
        <time>2017-07-31T10:50:29Z</time>
      </trkpt>
      <trkpt lat="42.44949" lon="0.05832">
        <ele>602.2</ele>
        <time>2017-07-31T10:50:30Z</time>
      </trkpt>
      <trkpt lat="42.44945" lon="0.05836">
        <ele>602.1</ele>
        <time>2017-07-31T10:50:31Z</time>
      </trkpt>
      <trkpt lat="42.44942" lon="0.05842">
        <ele>602</ele>
        <time>2017-07-31T10:50:32Z</time>
      </trkpt>
      <trkpt lat="42.44938" lon="0.05849">
        <ele>602</ele>
        <time>2017-07-31T10:50:33Z</time>
      </trkpt>
      <trkpt lat="42.44934" lon="0.05854">
        <ele>602</ele>
        <time>2017-07-31T10:50:34Z</time>
      </trkpt>
      <trkpt lat="42.44931" lon="0.05859">
        <ele>602</ele>
        <time>2017-07-31T10:50:35Z</time>
      </trkpt>
      <trkpt lat="42.44927" lon="0.05865">
        <ele>601.9</ele>
        <time>2017-07-31T10:50:36Z</time>
      </trkpt>
      <trkpt lat="42.44924" lon="0.0587">
        <ele>601.9</ele>
        <time>2017-07-31T10:50:37Z</time>
      </trkpt>
      <trkpt lat="42.4492" lon="0.05877">
        <ele>601.9</ele>
        <time>2017-07-31T10:50:38Z</time>
      </trkpt>
      <trkpt lat="42.44917" lon="0.05883">
        <ele>601.9</ele>
        <time>2017-07-31T10:50:39Z</time>
      </trkpt>
      <trkpt lat="42.44912" lon="0.05889">
        <ele>601.9</ele>
        <time>2017-07-31T10:50:40Z</time>
      </trkpt>
      <trkpt lat="42.44908" lon="0.05894">
        <ele>601.9</ele>
        <time>2017-07-31T10:50:41Z</time>
      </trkpt>
      <trkpt lat="42.44904" lon="0.05901">
        <ele>601.9</ele>
        <time>2017-07-31T10:50:42Z</time>
      </trkpt>
      <trkpt lat="42.44901" lon="0.05907">
        <ele>601.9</ele>
        <time>2017-07-31T10:50:43Z</time>
      </trkpt>
      <trkpt lat="42.44897" lon="0.05913">
        <ele>601.8</ele>
        <time>2017-07-31T10:50:44Z</time>
      </trkpt>
      <trkpt lat="42.44894" lon="0.05919">
        <ele>601.8</ele>
        <time>2017-07-31T10:50:45Z</time>
      </trkpt>
      <trkpt lat="42.4489" lon="0.05926">
        <ele>601.8</ele>
        <time>2017-07-31T10:50:46Z</time>
      </trkpt>
      <trkpt lat="42.44886" lon="0.05932">
        <ele>601.8</ele>
        <time>2017-07-31T10:50:47Z</time>
      </trkpt>
      <trkpt lat="42.44882" lon="0.05938">
        <ele>601.8</ele>
        <time>2017-07-31T10:50:48Z</time>
      </trkpt>
      <trkpt lat="42.44878" lon="0.05944">
        <ele>601.8</ele>
        <time>2017-07-31T10:50:49Z</time>
      </trkpt>
      <trkpt lat="42.44874" lon="0.0595">
        <ele>601.8</ele>
        <time>2017-07-31T10:50:50Z</time>
      </trkpt>
      <trkpt lat="42.4487" lon="0.05957">
        <ele>601.7</ele>
        <time>2017-07-31T10:50:51Z</time>
      </trkpt>
      <trkpt lat="42.44866" lon="0.05962">
        <ele>601.7</ele>
        <time>2017-07-31T10:50:52Z</time>
      </trkpt>
      <trkpt lat="42.44863" lon="0.05969">
        <ele>601.7</ele>
        <time>2017-07-31T10:50:53Z</time>
      </trkpt>
      <trkpt lat="42.44859" lon="0.05974">
        <ele>601.7</ele>
        <time>2017-07-31T10:50:54Z</time>
      </trkpt>
      <trkpt lat="42.44855" lon="0.05981">
        <ele>601.7</ele>
        <time>2017-07-31T10:50:55Z</time>
      </trkpt>
      <trkpt lat="42.44851" lon="0.05987">
        <ele>601.7</ele>
        <time>2017-07-31T10:50:56Z</time>
      </trkpt>
      <trkpt lat="42.44847" lon="0.05993">
        <ele>601.6</ele>
        <time>2017-07-31T10:50:57Z</time>
      </trkpt>
      <trkpt lat="42.44843" lon="0.05998">
        <ele>601.6</ele>
        <time>2017-07-31T10:50:58Z</time>
      </trkpt>
      <trkpt lat="42.44839" lon="0.06006">
        <ele>601.6</ele>
        <time>2017-07-31T10:50:59Z</time>
      </trkpt>
      <trkpt lat="42.44836" lon="0.06012">
        <ele>601.6</ele>
        <time>2017-07-31T10:51:00Z</time>
      </trkpt>
      <trkpt lat="42.44833" lon="0.06018">
        <ele>601.6</ele>
        <time>2017-07-31T10:51:01Z</time>
      </trkpt>
      <trkpt lat="42.4483" lon="0.06026">
        <ele>601.5</ele>
        <time>2017-07-31T10:51:02Z</time>
      </trkpt>
      <trkpt lat="42.44826" lon="0.06031">
        <ele>601.5</ele>
        <time>2017-07-31T10:51:03Z</time>
      </trkpt>
      <trkpt lat="42.44824" lon="0.06039">
        <ele>601.5</ele>
        <time>2017-07-31T10:51:04Z</time>
      </trkpt>
      <trkpt lat="42.4482" lon="0.06044">
        <ele>601.4</ele>
        <time>2017-07-31T10:51:05Z</time>
      </trkpt>
      <trkpt lat="42.44817" lon="0.0605">
        <ele>601.4</ele>
        <time>2017-07-31T10:51:06Z</time>
      </trkpt>
      <trkpt lat="42.44814" lon="0.06056">
        <ele>601.4</ele>
        <time>2017-07-31T10:51:07Z</time>
      </trkpt>
      <trkpt lat="42.44811" lon="0.06062">
        <ele>601.3</ele>
        <time>2017-07-31T10:51:08Z</time>
      </trkpt>
      <trkpt lat="42.44806" lon="0.06066">
        <ele>601.3</ele>
        <time>2017-07-31T10:51:09Z</time>
      </trkpt>
      <trkpt lat="42.44802" lon="0.06072">
        <ele>601.2</ele>
        <time>2017-07-31T10:51:10Z</time>
      </trkpt>
      <trkpt lat="42.44798" lon="0.06077">
        <ele>601.1</ele>
        <time>2017-07-31T10:51:11Z</time>
      </trkpt>
      <trkpt lat="42.44793" lon="0.06083">
        <ele>600.8</ele>
        <time>2017-07-31T10:51:12Z</time>
      </trkpt>
      <trkpt lat="42.4479" lon="0.06092">
        <ele>600.4</ele>
        <time>2017-07-31T10:51:13Z</time>
      </trkpt>
      <trkpt lat="42.44787" lon="0.06098">
        <ele>600</ele>
        <time>2017-07-31T10:51:14Z</time>
      </trkpt>
      <trkpt lat="42.44783" lon="0.06103">
        <ele>599.7</ele>
        <time>2017-07-31T10:51:15Z</time>
      </trkpt>
      <trkpt lat="42.4478" lon="0.06109">
        <ele>599.6</ele>
        <time>2017-07-31T10:51:16Z</time>
      </trkpt>
      <trkpt lat="42.44775" lon="0.06115">
        <ele>599.5</ele>
        <time>2017-07-31T10:51:17Z</time>
      </trkpt>
      <trkpt lat="42.44772" lon="0.06121">
        <ele>599.4</ele>
        <time>2017-07-31T10:51:18Z</time>
      </trkpt>
      <trkpt lat="42.44769" lon="0.06127">
        <ele>599.3</ele>
        <time>2017-07-31T10:51:19Z</time>
      </trkpt>
      <trkpt lat="42.44764" lon="0.06133">
        <ele>599.2</ele>
        <time>2017-07-31T10:51:20Z</time>
      </trkpt>
      <trkpt lat="42.44761" lon="0.06138">
        <ele>599.1</ele>
        <time>2017-07-31T10:51:21Z</time>
      </trkpt>
      <trkpt lat="42.44756" lon="0.06144">
        <ele>599</ele>
        <time>2017-07-31T10:51:22Z</time>
      </trkpt>
      <trkpt lat="42.44752" lon="0.0615">
        <ele>598.9</ele>
        <time>2017-07-31T10:51:23Z</time>
      </trkpt>
      <trkpt lat="42.44748" lon="0.06156">
        <ele>598.8</ele>
        <time>2017-07-31T10:51:24Z</time>
      </trkpt>
      <trkpt lat="42.44744" lon="0.06163">
        <ele>598.6</ele>
        <time>2017-07-31T10:51:25Z</time>
      </trkpt>
      <trkpt lat="42.4474" lon="0.0617">
        <ele>598.3</ele>
        <time>2017-07-31T10:51:26Z</time>
      </trkpt>
      <trkpt lat="42.44736" lon="0.06176">
        <ele>597.9</ele>
        <time>2017-07-31T10:51:27Z</time>
      </trkpt>
      <trkpt lat="42.44732" lon="0.06181">
        <ele>597.5</ele>
        <time>2017-07-31T10:51:28Z</time>
      </trkpt>
      <trkpt lat="42.44728" lon="0.06187">
        <ele>597.2</ele>
        <time>2017-07-31T10:51:29Z</time>
      </trkpt>
      <trkpt lat="42.44725" lon="0.06192">
        <ele>596.8</ele>
        <time>2017-07-31T10:51:30Z</time>
      </trkpt>
      <trkpt lat="42.44721" lon="0.06199">
        <ele>596.7</ele>
        <time>2017-07-31T10:51:31Z</time>
      </trkpt>
      <trkpt lat="42.44716" lon="0.06207">
        <ele>596.6</ele>
        <time>2017-07-31T10:51:32Z</time>
      </trkpt>
      <trkpt lat="42.44713" lon="0.06213">
        <ele>596.5</ele>
        <time>2017-07-31T10:51:33Z</time>
      </trkpt>
      <trkpt lat="42.44709" lon="0.06219">
        <ele>596.4</ele>
        <time>2017-07-31T10:51:34Z</time>
      </trkpt>
      <trkpt lat="42.44706" lon="0.06223">
        <ele>596.3</ele>
        <time>2017-07-31T10:51:35Z</time>
      </trkpt>
      <trkpt lat="42.44702" lon="0.0623">
        <ele>596.2</ele>
        <time>2017-07-31T10:51:36Z</time>
      </trkpt>
      <trkpt lat="42.44698" lon="0.06237">
        <ele>596</ele>
        <time>2017-07-31T10:51:37Z</time>
      </trkpt>
      <trkpt lat="42.44694" lon="0.06243">
        <ele>595.7</ele>
        <time>2017-07-31T10:51:38Z</time>
      </trkpt>
      <trkpt lat="42.44689" lon="0.0625">
        <ele>595.3</ele>
        <time>2017-07-31T10:51:39Z</time>
      </trkpt>
      <trkpt lat="42.44685" lon="0.06257">
        <ele>594.8</ele>
        <time>2017-07-31T10:51:40Z</time>
      </trkpt>
      <trkpt lat="42.4468" lon="0.06263">
        <ele>594.4</ele>
        <time>2017-07-31T10:51:41Z</time>
      </trkpt>
      <trkpt lat="42.44676" lon="0.0627">
        <ele>594.2</ele>
        <time>2017-07-31T10:51:42Z</time>
      </trkpt>
      <trkpt lat="42.44672" lon="0.06277">
        <ele>594.1</ele>
        <time>2017-07-31T10:51:43Z</time>
      </trkpt>
      <trkpt lat="42.44668" lon="0.06283">
        <ele>594.1</ele>
        <time>2017-07-31T10:51:44Z</time>
      </trkpt>
      <trkpt lat="42.44663" lon="0.0629">
        <ele>594</ele>
        <time>2017-07-31T10:51:45Z</time>
      </trkpt>
      <trkpt lat="42.44658" lon="0.06297">
        <ele>593.9</ele>
        <time>2017-07-31T10:51:46Z</time>
      </trkpt>
      <trkpt lat="42.44653" lon="0.06303">
        <ele>593.8</ele>
        <time>2017-07-31T10:51:47Z</time>
      </trkpt>
      <trkpt lat="42.44649" lon="0.06309">
        <ele>593.7</ele>
        <time>2017-07-31T10:51:48Z</time>
      </trkpt>
      <trkpt lat="42.44644" lon="0.06318">
        <ele>593.7</ele>
        <time>2017-07-31T10:51:49Z</time>
      </trkpt>
      <trkpt lat="42.4464" lon="0.06324">
        <ele>593.6</ele>
        <time>2017-07-31T10:51:50Z</time>
      </trkpt>
      <trkpt lat="42.44636" lon="0.0633">
        <ele>593.6</ele>
        <time>2017-07-31T10:51:51Z</time>
      </trkpt>
      <trkpt lat="42.44632" lon="0.06336">
        <ele>593.6</ele>
        <time>2017-07-31T10:51:52Z</time>
      </trkpt>
      <trkpt lat="42.44627" lon="0.06343">
        <ele>593.6</ele>
        <time>2017-07-31T10:51:53Z</time>
      </trkpt>
      <trkpt lat="42.44624" lon="0.06351">
        <ele>593.5</ele>
        <time>2017-07-31T10:51:54Z</time>
      </trkpt>
      <trkpt lat="42.44619" lon="0.06359">
        <ele>593.5</ele>
        <time>2017-07-31T10:51:55Z</time>
      </trkpt>
      <trkpt lat="42.44615" lon="0.06366">
        <ele>593.5</ele>
        <time>2017-07-31T10:51:56Z</time>
      </trkpt>
      <trkpt lat="42.44611" lon="0.06373">
        <ele>593.5</ele>
        <time>2017-07-31T10:51:57Z</time>
      </trkpt>
      <trkpt lat="42.44607" lon="0.0638">
        <ele>593.5</ele>
        <time>2017-07-31T10:51:58Z</time>
      </trkpt>
      <trkpt lat="42.44603" lon="0.06388">
        <ele>593.5</ele>
        <time>2017-07-31T10:51:59Z</time>
      </trkpt>
      <trkpt lat="42.44598" lon="0.06395">
        <ele>593.4</ele>
        <time>2017-07-31T10:52:00Z</time>
      </trkpt>
      <trkpt lat="42.44593" lon="0.06402">
        <ele>593.4</ele>
        <time>2017-07-31T10:52:01Z</time>
      </trkpt>
      <trkpt lat="42.44588" lon="0.06408">
        <ele>593.4</ele>
        <time>2017-07-31T10:52:02Z</time>
      </trkpt>
      <trkpt lat="42.44584" lon="0.06416">
        <ele>593.4</ele>
        <time>2017-07-31T10:52:03Z</time>
      </trkpt>
      <trkpt lat="42.44579" lon="0.06422">
        <ele>593.4</ele>
        <time>2017-07-31T10:52:04Z</time>
      </trkpt>
      <trkpt lat="42.44575" lon="0.06429">
        <ele>593.3</ele>
        <time>2017-07-31T10:52:05Z</time>
      </trkpt>
      <trkpt lat="42.44571" lon="0.06438">
        <ele>593.3</ele>
        <time>2017-07-31T10:52:06Z</time>
      </trkpt>
      <trkpt lat="42.44567" lon="0.06445">
        <ele>593.3</ele>
        <time>2017-07-31T10:52:07Z</time>
      </trkpt>
      <trkpt lat="42.44563" lon="0.06453">
        <ele>593.3</ele>
        <time>2017-07-31T10:52:08Z</time>
      </trkpt>
      <trkpt lat="42.4456" lon="0.06459">
        <ele>593.3</ele>
        <time>2017-07-31T10:52:09Z</time>
      </trkpt>
      <trkpt lat="42.44555" lon="0.06465">
        <ele>593.2</ele>
        <time>2017-07-31T10:52:10Z</time>
      </trkpt>
      <trkpt lat="42.44551" lon="0.06471">
        <ele>593.2</ele>
        <time>2017-07-31T10:52:11Z</time>
      </trkpt>
      <trkpt lat="42.44547" lon="0.06478">
        <ele>593.2</ele>
        <time>2017-07-31T10:52:12Z</time>
      </trkpt>
      <trkpt lat="42.44543" lon="0.06484">
        <ele>593.2</ele>
        <time>2017-07-31T10:52:13Z</time>
      </trkpt>
      <trkpt lat="42.44539" lon="0.0649">
        <ele>593.2</ele>
        <time>2017-07-31T10:52:14Z</time>
      </trkpt>
      <trkpt lat="42.44535" lon="0.06495">
        <ele>593.1</ele>
        <time>2017-07-31T10:52:15Z</time>
      </trkpt>
      <trkpt lat="42.44531" lon="0.06501">
        <ele>593.1</ele>
        <time>2017-07-31T10:52:16Z</time>
      </trkpt>
      <trkpt lat="42.44527" lon="0.06506">
        <ele>593.1</ele>
        <time>2017-07-31T10:52:17Z</time>
      </trkpt>
      <trkpt lat="42.44524" lon="0.06511">
        <ele>593.1</ele>
        <time>2017-07-31T10:52:18Z</time>
      </trkpt>
      <trkpt lat="42.4452" lon="0.06517">
        <ele>593.1</ele>
        <time>2017-07-31T10:52:19Z</time>
      </trkpt>
      <trkpt lat="42.44517" lon="0.06523">
        <ele>593.1</ele>
        <time>2017-07-31T10:52:20Z</time>
      </trkpt>
      <trkpt lat="42.44513" lon="0.06528">
        <ele>593.1</ele>
        <time>2017-07-31T10:52:21Z</time>
      </trkpt>
      <trkpt lat="42.44509" lon="0.06534">
        <ele>593.1</ele>
        <time>2017-07-31T10:52:22Z</time>
      </trkpt>
      <trkpt lat="42.44505" lon="0.06539">
        <ele>593.1</ele>
        <time>2017-07-31T10:52:23Z</time>
      </trkpt>
      <trkpt lat="42.44501" lon="0.06544">
        <ele>593.1</ele>
        <time>2017-07-31T10:52:24Z</time>
      </trkpt>
      <trkpt lat="42.44498" lon="0.0655">
        <ele>593</ele>
        <time>2017-07-31T10:52:25Z</time>
      </trkpt>
      <trkpt lat="42.44494" lon="0.06555">
        <ele>593</ele>
        <time>2017-07-31T10:52:26Z</time>
      </trkpt>
      <trkpt lat="42.4449" lon="0.06561">
        <ele>593</ele>
        <time>2017-07-31T10:52:27Z</time>
      </trkpt>
      <trkpt lat="42.44486" lon="0.06567">
        <ele>593</ele>
        <time>2017-07-31T10:52:28Z</time>
      </trkpt>
      <trkpt lat="42.44483" lon="0.06572">
        <ele>593</ele>
        <time>2017-07-31T10:52:29Z</time>
      </trkpt>
      <trkpt lat="42.4448" lon="0.06578">
        <ele>592.8</ele>
        <time>2017-07-31T10:52:30Z</time>
      </trkpt>
      <trkpt lat="42.44476" lon="0.06584">
        <ele>592.5</ele>
        <time>2017-07-31T10:52:31Z</time>
      </trkpt>
      <trkpt lat="42.44473" lon="0.06589">
        <ele>592.3</ele>
        <time>2017-07-31T10:52:32Z</time>
      </trkpt>
      <trkpt lat="42.44469" lon="0.06595">
        <ele>592.1</ele>
        <time>2017-07-31T10:52:33Z</time>
      </trkpt>
      <trkpt lat="42.44465" lon="0.066">
        <ele>591.8</ele>
        <time>2017-07-31T10:52:34Z</time>
      </trkpt>
      <trkpt lat="42.44461" lon="0.06605">
        <ele>591.6</ele>
        <time>2017-07-31T10:52:35Z</time>
      </trkpt>
      <trkpt lat="42.44458" lon="0.06609">
        <ele>591.4</ele>
        <time>2017-07-31T10:52:36Z</time>
      </trkpt>
      <trkpt lat="42.44456" lon="0.06613">
        <ele>591.3</ele>
        <time>2017-07-31T10:52:37Z</time>
      </trkpt>
      <trkpt lat="42.44454" lon="0.06619">
        <ele>591.1</ele>
        <time>2017-07-31T10:52:38Z</time>
      </trkpt>
      <trkpt lat="42.44451" lon="0.06624">
        <ele>590.8</ele>
        <time>2017-07-31T10:52:39Z</time>
      </trkpt>
      <trkpt lat="42.44449" lon="0.06628">
        <ele>590.6</ele>
        <time>2017-07-31T10:52:40Z</time>
      </trkpt>
      <trkpt lat="42.44445" lon="0.0663">
        <ele>590.4</ele>
        <time>2017-07-31T10:52:41Z</time>
      </trkpt>
      <trkpt lat="42.4444" lon="0.06632">
        <ele>590</ele>
        <time>2017-07-31T10:52:42Z</time>
      </trkpt>
      <trkpt lat="42.44437" lon="0.06629">
        <ele>590</ele>
        <time>2017-07-31T10:52:43Z</time>
      </trkpt>
      <trkpt lat="42.44432" lon="0.06626">
        <ele>590</ele>
        <time>2017-07-31T10:52:44Z</time>
      </trkpt>
      <trkpt lat="42.44429" lon="0.06621">
        <ele>590.4</ele>
        <time>2017-07-31T10:52:45Z</time>
      </trkpt>
      <trkpt lat="42.44425" lon="0.06614">
        <ele>591.5</ele>
        <time>2017-07-31T10:52:46Z</time>
      </trkpt>
      <trkpt lat="42.44423" lon="0.0661">
        <ele>592.4</ele>
        <time>2017-07-31T10:52:47Z</time>
      </trkpt>
      <trkpt lat="42.4442" lon="0.06604">
        <ele>593.3</ele>
        <time>2017-07-31T10:52:49Z</time>
      </trkpt>
      <trkpt lat="42.44417" lon="0.06599">
        <ele>594.1</ele>
        <time>2017-07-31T10:52:51Z</time>
      </trkpt>
      <trkpt lat="42.44416" lon="0.06595">
        <ele>595.4</ele>
        <time>2017-07-31T10:52:52Z</time>
      </trkpt>
      <trkpt lat="42.44414" lon="0.06591">
        <ele>596.4</ele>
        <time>2017-07-31T10:52:53Z</time>
      </trkpt>
      <trkpt lat="42.44413" lon="0.06587">
        <ele>597.3</ele>
        <time>2017-07-31T10:52:54Z</time>
      </trkpt>
      <trkpt lat="42.44411" lon="0.06584">
        <ele>598</ele>
        <time>2017-07-31T10:52:55Z</time>
      </trkpt>
      <trkpt lat="42.44409" lon="0.06581">
        <ele>598.7</ele>
        <time>2017-07-31T10:52:56Z</time>
      </trkpt>
      <trkpt lat="42.44407" lon="0.06577">
        <ele>599.4</ele>
        <time>2017-07-31T10:52:57Z</time>
      </trkpt>
      <trkpt lat="42.44405" lon="0.06574">
        <ele>600.1</ele>
        <time>2017-07-31T10:52:58Z</time>
      </trkpt>
      <trkpt lat="42.44404" lon="0.0657">
        <ele>600.8</ele>
        <time>2017-07-31T10:52:59Z</time>
      </trkpt>
      <trkpt lat="42.44402" lon="0.06567">
        <ele>601.5</ele>
        <time>2017-07-31T10:53:00Z</time>
      </trkpt>
      <trkpt lat="42.444" lon="0.06562">
        <ele>602</ele>
        <time>2017-07-31T10:53:01Z</time>
      </trkpt>
      <trkpt lat="42.44398" lon="0.06558">
        <ele>602</ele>
        <time>2017-07-31T10:53:02Z</time>
      </trkpt>
      <trkpt lat="42.44396" lon="0.06554">
        <ele>602</ele>
        <time>2017-07-31T10:53:03Z</time>
      </trkpt>
      <trkpt lat="42.44393" lon="0.06549">
        <ele>602</ele>
        <time>2017-07-31T10:53:04Z</time>
      </trkpt>
      <trkpt lat="42.44389" lon="0.06546">
        <ele>602</ele>
        <time>2017-07-31T10:53:05Z</time>
      </trkpt>
      <trkpt lat="42.44384" lon="0.06545">
        <ele>602</ele>
        <time>2017-07-31T10:53:06Z</time>
      </trkpt>
      <trkpt lat="42.44379" lon="0.06542">
        <ele>602.1</ele>
        <time>2017-07-31T10:53:07Z</time>
      </trkpt>
      <trkpt lat="42.44374" lon="0.06541">
        <ele>602.5</ele>
        <time>2017-07-31T10:53:08Z</time>
      </trkpt>
      <trkpt lat="42.4437" lon="0.06542">
        <ele>602.9</ele>
        <time>2017-07-31T10:53:09Z</time>
      </trkpt>
      <trkpt lat="42.44366" lon="0.06542">
        <ele>603.3</ele>
        <time>2017-07-31T10:53:10Z</time>
      </trkpt>
      <trkpt lat="42.44363" lon="0.06544">
        <ele>603.7</ele>
        <time>2017-07-31T10:53:11Z</time>
      </trkpt>
      <trkpt lat="42.44359" lon="0.06547">
        <ele>604.1</ele>
        <time>2017-07-31T10:53:12Z</time>
      </trkpt>
      <trkpt lat="42.44356" lon="0.06549">
        <ele>604.5</ele>
        <time>2017-07-31T10:53:13Z</time>
      </trkpt>
      <trkpt lat="42.44352" lon="0.06551">
        <ele>604.9</ele>
        <time>2017-07-31T10:53:14Z</time>
      </trkpt>
      <trkpt lat="42.44348" lon="0.06553">
        <ele>605.4</ele>
        <time>2017-07-31T10:53:15Z</time>
      </trkpt>
      <trkpt lat="42.44345" lon="0.06555">
        <ele>605.8</ele>
        <time>2017-07-31T10:53:16Z</time>
      </trkpt>
      <trkpt lat="42.44342" lon="0.06557">
        <ele>606.1</ele>
        <time>2017-07-31T10:53:17Z</time>
      </trkpt>
      <trkpt lat="42.44339" lon="0.06558">
        <ele>606.5</ele>
        <time>2017-07-31T10:53:18Z</time>
      </trkpt>
      <trkpt lat="42.44335" lon="0.06561">
        <ele>607</ele>
        <time>2017-07-31T10:53:20Z</time>
      </trkpt>
      <trkpt lat="42.44332" lon="0.06562">
        <ele>607.4</ele>
        <time>2017-07-31T10:53:22Z</time>
      </trkpt>
      <trkpt lat="42.4433" lon="0.06566">
        <ele>607.7</ele>
        <time>2017-07-31T10:53:44Z</time>
      </trkpt>
    </trkseg>
  </trk>
  <trk>
    <name><![CDATA[Broto 31. ]]></name>
    <extensions>
      <line xmlns="http://www.topografix.com/GPX/gpx_style/0/2">
        <color>000088</color>
        <width>4</width>
      </line>
    </extensions>
    <trkseg>
      <trkpt lat="42.60204" lon="-0.12079">
        <ele>896.9</ele>
        <time>2017-07-30T07:35:18Z</time>
      </trkpt>
      <trkpt lat="42.60201" lon="-0.12079">
        <ele>897.1</ele>
        <time>2017-07-30T07:35:54Z</time>
      </trkpt>
      <trkpt lat="42.60205" lon="-0.12079">
        <ele>897</ele>
        <time>2017-07-30T07:39:54Z</time>
      </trkpt>
      <trkpt lat="42.60205" lon="-0.12075">
        <ele>897</ele>
        <time>2017-07-30T07:39:57Z</time>
      </trkpt>
      <trkpt lat="42.60208" lon="-0.12071">
        <ele>897</ele>
        <time>2017-07-30T07:39:59Z</time>
      </trkpt>
      <trkpt lat="42.60211" lon="-0.12071">
        <ele>897</ele>
        <time>2017-07-30T07:40:01Z</time>
      </trkpt>
      <trkpt lat="42.60215" lon="-0.1207">
        <ele>897</ele>
        <time>2017-07-30T07:40:03Z</time>
      </trkpt>
      <trkpt lat="42.60218" lon="-0.12068">
        <ele>897</ele>
        <time>2017-07-30T07:40:05Z</time>
      </trkpt>
      <trkpt lat="42.60221" lon="-0.12067">
        <ele>897</ele>
        <time>2017-07-30T07:40:07Z</time>
      </trkpt>
      <trkpt lat="42.60224" lon="-0.12066">
        <ele>897</ele>
        <time>2017-07-30T07:40:09Z</time>
      </trkpt>
      <trkpt lat="42.60227" lon="-0.12066">
        <ele>897</ele>
        <time>2017-07-30T07:40:11Z</time>
      </trkpt>
      <trkpt lat="42.6023" lon="-0.12066">
        <ele>897</ele>
        <time>2017-07-30T07:40:13Z</time>
      </trkpt>
      <trkpt lat="42.60233" lon="-0.12067">
        <ele>897</ele>
        <time>2017-07-30T07:40:15Z</time>
      </trkpt>
      <trkpt lat="42.60238" lon="-0.12069">
        <ele>897</ele>
        <time>2017-07-30T07:41:55Z</time>
      </trkpt>
      <trkpt lat="42.60243" lon="-0.12067">
        <ele>897</ele>
        <time>2017-07-30T07:41:57Z</time>
      </trkpt>
      <trkpt lat="42.60245" lon="-0.12066">
        <ele>896.8</ele>
        <time>2017-07-30T07:41:58Z</time>
      </trkpt>
      <trkpt lat="42.60248" lon="-0.12065">
        <ele>895.7</ele>
        <time>2017-07-30T07:41:59Z</time>
      </trkpt>
      <trkpt lat="42.60252" lon="-0.12064">
        <ele>894.5</ele>
        <time>2017-07-30T07:42:00Z</time>
      </trkpt>
      <trkpt lat="42.60255" lon="-0.12063">
        <ele>894</ele>
        <time>2017-07-30T07:42:01Z</time>
      </trkpt>
      <trkpt lat="42.60257" lon="-0.12062">
        <ele>894</ele>
        <time>2017-07-30T07:42:02Z</time>
      </trkpt>
      <trkpt lat="42.60263" lon="-0.12062">
        <ele>894</ele>
        <time>2017-07-30T07:42:04Z</time>
      </trkpt>
      <trkpt lat="42.60266" lon="-0.12063">
        <ele>894</ele>
        <time>2017-07-30T07:42:05Z</time>
      </trkpt>
      <trkpt lat="42.60268" lon="-0.12063">
        <ele>894</ele>
        <time>2017-07-30T07:42:06Z</time>
      </trkpt>
      <trkpt lat="42.60273" lon="-0.12064">
        <ele>894</ele>
        <time>2017-07-30T07:42:08Z</time>
      </trkpt>
      <trkpt lat="42.60277" lon="-0.12064">
        <ele>894</ele>
        <time>2017-07-30T07:42:10Z</time>
      </trkpt>
      <trkpt lat="42.60279" lon="-0.12063">
        <ele>894</ele>
        <time>2017-07-30T07:42:11Z</time>
      </trkpt>
      <trkpt lat="42.60283" lon="-0.12062">
        <ele>894</ele>
        <time>2017-07-30T07:42:12Z</time>
      </trkpt>
      <trkpt lat="42.60287" lon="-0.12061">
        <ele>893.9</ele>
        <time>2017-07-30T07:42:13Z</time>
      </trkpt>
      <trkpt lat="42.60291" lon="-0.12062">
        <ele>893.9</ele>
        <time>2017-07-30T07:42:14Z</time>
      </trkpt>
      <trkpt lat="42.60295" lon="-0.12063">
        <ele>893.8</ele>
        <time>2017-07-30T07:42:15Z</time>
      </trkpt>
      <trkpt lat="42.60299" lon="-0.12066">
        <ele>893.7</ele>
        <time>2017-07-30T07:42:16Z</time>
      </trkpt>
      <trkpt lat="42.60303" lon="-0.12068">
        <ele>893.7</ele>
        <time>2017-07-30T07:42:17Z</time>
      </trkpt>
      <trkpt lat="42.60307" lon="-0.12071">
        <ele>893.6</ele>
        <time>2017-07-30T07:42:18Z</time>
      </trkpt>
      <trkpt lat="42.60311" lon="-0.12073">
        <ele>893.5</ele>
        <time>2017-07-30T07:42:19Z</time>
      </trkpt>
      <trkpt lat="42.60315" lon="-0.12076">
        <ele>893.5</ele>
        <time>2017-07-30T07:42:20Z</time>
      </trkpt>
      <trkpt lat="42.60319" lon="-0.12079">
        <ele>893.4</ele>
        <time>2017-07-30T07:42:21Z</time>
      </trkpt>
      <trkpt lat="42.60322" lon="-0.12082">
        <ele>893.4</ele>
        <time>2017-07-30T07:42:22Z</time>
      </trkpt>
      <trkpt lat="42.60326" lon="-0.12085">
        <ele>893.3</ele>
        <time>2017-07-30T07:42:23Z</time>
      </trkpt>
      <trkpt lat="42.6033" lon="-0.12089">
        <ele>893.3</ele>
        <time>2017-07-30T07:42:24Z</time>
      </trkpt>
      <trkpt lat="42.60334" lon="-0.12093">
        <ele>893.2</ele>
        <time>2017-07-30T07:42:25Z</time>
      </trkpt>
      <trkpt lat="42.60338" lon="-0.12096">
        <ele>893.2</ele>
        <time>2017-07-30T07:42:26Z</time>
      </trkpt>
      <trkpt lat="42.60341" lon="-0.121">
        <ele>893.1</ele>
        <time>2017-07-30T07:42:27Z</time>
      </trkpt>
      <trkpt lat="42.60345" lon="-0.12105">
        <ele>893.1</ele>
        <time>2017-07-30T07:42:28Z</time>
      </trkpt>
      <trkpt lat="42.60348" lon="-0.12109">
        <ele>893</ele>
        <time>2017-07-30T07:42:29Z</time>
      </trkpt>
      <trkpt lat="42.60352" lon="-0.12113">
        <ele>893</ele>
        <time>2017-07-30T07:42:30Z</time>
      </trkpt>
      <trkpt lat="42.60355" lon="-0.12118">
        <ele>892.9</ele>
        <time>2017-07-30T07:42:31Z</time>
      </trkpt>
      <trkpt lat="42.60358" lon="-0.12122">
        <ele>892.8</ele>
        <time>2017-07-30T07:42:32Z</time>
      </trkpt>
      <trkpt lat="42.60361" lon="-0.12127">
        <ele>892.8</ele>
        <time>2017-07-30T07:42:33Z</time>
      </trkpt>
      <trkpt lat="42.60365" lon="-0.12131">
        <ele>892.7</ele>
        <time>2017-07-30T07:42:34Z</time>
      </trkpt>
      <trkpt lat="42.60368" lon="-0.12136">
        <ele>892.6</ele>
        <time>2017-07-30T07:42:35Z</time>
      </trkpt>
      <trkpt lat="42.60371" lon="-0.12141">
        <ele>892.6</ele>
        <time>2017-07-30T07:42:36Z</time>
      </trkpt>
      <trkpt lat="42.60374" lon="-0.12145">
        <ele>892.5</ele>
        <time>2017-07-30T07:42:37Z</time>
      </trkpt>
      <trkpt lat="42.60378" lon="-0.1215">
        <ele>892.4</ele>
        <time>2017-07-30T07:42:38Z</time>
      </trkpt>
      <trkpt lat="42.60381" lon="-0.12155">
        <ele>892.3</ele>
        <time>2017-07-30T07:42:39Z</time>
      </trkpt>
      <trkpt lat="42.60384" lon="-0.1216">
        <ele>892.2</ele>
        <time>2017-07-30T07:42:40Z</time>
      </trkpt>
      <trkpt lat="42.60387" lon="-0.12165">
        <ele>892.1</ele>
        <time>2017-07-30T07:42:41Z</time>
      </trkpt>
      <trkpt lat="42.6039" lon="-0.1217">
        <ele>892</ele>
        <time>2017-07-30T07:42:42Z</time>
      </trkpt>
      <trkpt lat="42.60393" lon="-0.12175">
        <ele>891.9</ele>
        <time>2017-07-30T07:42:43Z</time>
      </trkpt>
      <trkpt lat="42.60396" lon="-0.1218">
        <ele>891.8</ele>
        <time>2017-07-30T07:42:44Z</time>
      </trkpt>
      <trkpt lat="42.60399" lon="-0.12185">
        <ele>892.3</ele>
        <time>2017-07-30T07:42:45Z</time>
      </trkpt>
      <trkpt lat="42.60401" lon="-0.1219">
        <ele>892.5</ele>
        <time>2017-07-30T07:42:46Z</time>
      </trkpt>
      <trkpt lat="42.60403" lon="-0.12195">
        <ele>892.4</ele>
        <time>2017-07-30T07:42:47Z</time>
      </trkpt>
      <trkpt lat="42.60405" lon="-0.122">
        <ele>892.4</ele>
        <time>2017-07-30T07:42:48Z</time>
      </trkpt>
      <trkpt lat="42.60407" lon="-0.12204">
        <ele>892.3</ele>
        <time>2017-07-30T07:42:49Z</time>
      </trkpt>
      <trkpt lat="42.60409" lon="-0.12209">
        <ele>892.2</ele>
        <time>2017-07-30T07:42:50Z</time>
      </trkpt>
      <trkpt lat="42.60411" lon="-0.12214">
        <ele>892.1</ele>
        <time>2017-07-30T07:42:51Z</time>
      </trkpt>
      <trkpt lat="42.60412" lon="-0.12218">
        <ele>892</ele>
        <time>2017-07-30T07:42:52Z</time>
      </trkpt>
      <trkpt lat="42.60414" lon="-0.12223">
        <ele>892</ele>
        <time>2017-07-30T07:42:54Z</time>
      </trkpt>
      <trkpt lat="42.60416" lon="-0.12227">
        <ele>892</ele>
        <time>2017-07-30T07:42:56Z</time>
      </trkpt>
      <trkpt lat="42.60417" lon="-0.1223">
        <ele>892.1</ele>
        <time>2017-07-30T07:42:58Z</time>
      </trkpt>
      <trkpt lat="42.60418" lon="-0.12234">
        <ele>893.7</ele>
        <time>2017-07-30T07:43:00Z</time>
      </trkpt>
      <trkpt lat="42.60421" lon="-0.12241">
        <ele>896.3</ele>
        <time>2017-07-30T07:43:02Z</time>
      </trkpt>
      <trkpt lat="42.60422" lon="-0.12245">
        <ele>898</ele>
        <time>2017-07-30T07:43:03Z</time>
      </trkpt>
      <trkpt lat="42.60424" lon="-0.12249">
        <ele>897.6</ele>
        <time>2017-07-30T07:43:04Z</time>
      </trkpt>
      <trkpt lat="42.60427" lon="-0.12253">
        <ele>897.3</ele>
        <time>2017-07-30T07:43:05Z</time>
      </trkpt>
      <trkpt lat="42.60429" lon="-0.12257">
        <ele>896.9</ele>
        <time>2017-07-30T07:43:06Z</time>
      </trkpt>
      <trkpt lat="42.60432" lon="-0.12261">
        <ele>896.5</ele>
        <time>2017-07-30T07:43:07Z</time>
      </trkpt>
      <trkpt lat="42.60434" lon="-0.12266">
        <ele>896.1</ele>
        <time>2017-07-30T07:43:08Z</time>
      </trkpt>
      <trkpt lat="42.60436" lon="-0.1227">
        <ele>895.7</ele>
        <time>2017-07-30T07:43:09Z</time>
      </trkpt>
      <trkpt lat="42.60439" lon="-0.12275">
        <ele>895.3</ele>
        <time>2017-07-30T07:43:10Z</time>
      </trkpt>
      <trkpt lat="42.60441" lon="-0.12279">
        <ele>895</ele>
        <time>2017-07-30T07:43:11Z</time>
      </trkpt>
      <trkpt lat="42.60444" lon="-0.12283">
        <ele>895</ele>
        <time>2017-07-30T07:43:12Z</time>
      </trkpt>
      <trkpt lat="42.60446" lon="-0.12287">
        <ele>895</ele>
        <time>2017-07-30T07:43:13Z</time>
      </trkpt>
      <trkpt lat="42.60449" lon="-0.12291">
        <ele>895</ele>
        <time>2017-07-30T07:43:14Z</time>
      </trkpt>
      <trkpt lat="42.60452" lon="-0.12295">
        <ele>895</ele>
        <time>2017-07-30T07:43:15Z</time>
      </trkpt>
      <trkpt lat="42.60455" lon="-0.123">
        <ele>895</ele>
        <time>2017-07-30T07:43:16Z</time>
      </trkpt>
      <trkpt lat="42.60458" lon="-0.12304">
        <ele>895</ele>
        <time>2017-07-30T07:43:17Z</time>
      </trkpt>
      <trkpt lat="42.60461" lon="-0.12309">
        <ele>895</ele>
        <time>2017-07-30T07:43:18Z</time>
      </trkpt>
      <trkpt lat="42.60464" lon="-0.12313">
        <ele>895</ele>
        <time>2017-07-30T07:43:19Z</time>
      </trkpt>
      <trkpt lat="42.60467" lon="-0.12317">
        <ele>895.1</ele>
        <time>2017-07-30T07:43:20Z</time>
      </trkpt>
      <trkpt lat="42.60471" lon="-0.12322">
        <ele>895.3</ele>
        <time>2017-07-30T07:43:21Z</time>
      </trkpt>
      <trkpt lat="42.60474" lon="-0.12327">
        <ele>895.5</ele>
        <time>2017-07-30T07:43:22Z</time>
      </trkpt>
      <trkpt lat="42.60477" lon="-0.12331">
        <ele>895.7</ele>
        <time>2017-07-30T07:43:23Z</time>
      </trkpt>
      <trkpt lat="42.6048" lon="-0.12336">
        <ele>895.9</ele>
        <time>2017-07-30T07:43:24Z</time>
      </trkpt>
      <trkpt lat="42.60483" lon="-0.1234">
        <ele>896.1</ele>
        <time>2017-07-30T07:43:25Z</time>
      </trkpt>
      <trkpt lat="42.60486" lon="-0.12344">
        <ele>896.3</ele>
        <time>2017-07-30T07:43:26Z</time>
      </trkpt>
      <trkpt lat="42.6049" lon="-0.12348">
        <ele>896.5</ele>
        <time>2017-07-30T07:43:27Z</time>
      </trkpt>
      <trkpt lat="42.60494" lon="-0.12352">
        <ele>896.7</ele>
        <time>2017-07-30T07:43:28Z</time>
      </trkpt>
      <trkpt lat="42.60498" lon="-0.12355">
        <ele>896.9</ele>
        <time>2017-07-30T07:43:29Z</time>
      </trkpt>
      <trkpt lat="42.60502" lon="-0.12359">
        <ele>897.2</ele>
        <time>2017-07-30T07:43:30Z</time>
      </trkpt>
      <trkpt lat="42.60505" lon="-0.12364">
        <ele>897.4</ele>
        <time>2017-07-30T07:43:31Z</time>
      </trkpt>
      <trkpt lat="42.60508" lon="-0.12367">
        <ele>897.5</ele>
        <time>2017-07-30T07:43:32Z</time>
      </trkpt>
      <trkpt lat="42.6051" lon="-0.1237">
        <ele>897.7</ele>
        <time>2017-07-30T07:43:33Z</time>
      </trkpt>
      <trkpt lat="42.60509" lon="-0.12375">
        <ele>898.2</ele>
        <time>2017-07-30T07:43:35Z</time>
      </trkpt>
      <trkpt lat="42.60506" lon="-0.12377">
        <ele>898.2</ele>
        <time>2017-07-30T07:43:36Z</time>
      </trkpt>
      <trkpt lat="42.60503" lon="-0.12378">
        <ele>898.3</ele>
        <time>2017-07-30T07:43:37Z</time>
      </trkpt>
      <trkpt lat="42.60499" lon="-0.12373">
        <ele>898.4</ele>
        <time>2017-07-30T07:43:38Z</time>
      </trkpt>
      <trkpt lat="42.60496" lon="-0.12368">
        <ele>898.5</ele>
        <time>2017-07-30T07:43:39Z</time>
      </trkpt>
      <trkpt lat="42.60491" lon="-0.12363">
        <ele>898.7</ele>
        <time>2017-07-30T07:43:40Z</time>
      </trkpt>
      <trkpt lat="42.60485" lon="-0.12359">
        <ele>898.8</ele>
        <time>2017-07-30T07:43:41Z</time>
      </trkpt>
      <trkpt lat="42.60478" lon="-0.12358">
        <ele>899</ele>
        <time>2017-07-30T07:43:42Z</time>
      </trkpt>
      <trkpt lat="42.60472" lon="-0.12361">
        <ele>899</ele>
        <time>2017-07-30T07:43:43Z</time>
      </trkpt>
      <trkpt lat="42.60467" lon="-0.12366">
        <ele>899</ele>
        <time>2017-07-30T07:43:44Z</time>
      </trkpt>
      <trkpt lat="42.60462" lon="-0.12372">
        <ele>899.1</ele>
        <time>2017-07-30T07:43:45Z</time>
      </trkpt>
      <trkpt lat="42.60457" lon="-0.12376">
        <ele>899.6</ele>
        <time>2017-07-30T07:43:46Z</time>
      </trkpt>
      <trkpt lat="42.60452" lon="-0.1238">
        <ele>900.1</ele>
        <time>2017-07-30T07:43:47Z</time>
      </trkpt>
      <trkpt lat="42.60447" lon="-0.12384">
        <ele>900.6</ele>
        <time>2017-07-30T07:43:48Z</time>
      </trkpt>
      <trkpt lat="42.60442" lon="-0.12388">
        <ele>901.1</ele>
        <time>2017-07-30T07:43:49Z</time>
      </trkpt>
      <trkpt lat="42.60437" lon="-0.12393">
        <ele>901.6</ele>
        <time>2017-07-30T07:43:50Z</time>
      </trkpt>
      <trkpt lat="42.60432" lon="-0.12397">
        <ele>902.1</ele>
        <time>2017-07-30T07:43:51Z</time>
      </trkpt>
      <trkpt lat="42.60428" lon="-0.12401">
        <ele>902.6</ele>
        <time>2017-07-30T07:43:52Z</time>
      </trkpt>
      <trkpt lat="42.60425" lon="-0.12404">
        <ele>902.9</ele>
        <time>2017-07-30T07:43:53Z</time>
      </trkpt>
      <trkpt lat="42.60421" lon="-0.12406">
        <ele>903.2</ele>
        <time>2017-07-30T07:43:54Z</time>
      </trkpt>
      <trkpt lat="42.60416" lon="-0.12409">
        <ele>903.8</ele>
        <time>2017-07-30T07:43:55Z</time>
      </trkpt>
      <trkpt lat="42.6041" lon="-0.12414">
        <ele>904</ele>
        <time>2017-07-30T07:43:57Z</time>
      </trkpt>
      <trkpt lat="42.60407" lon="-0.12416">
        <ele>915.6</ele>
        <time>2017-07-30T07:43:58Z</time>
      </trkpt>
      <trkpt lat="42.60404" lon="-0.12418">
        <ele>926</ele>
        <time>2017-07-30T07:43:59Z</time>
      </trkpt>
      <trkpt lat="42.60401" lon="-0.12419">
        <ele>926</ele>
        <time>2017-07-30T07:44:00Z</time>
      </trkpt>
      <trkpt lat="42.60398" lon="-0.12421">
        <ele>926</ele>
        <time>2017-07-30T07:44:01Z</time>
      </trkpt>
      <trkpt lat="42.60394" lon="-0.12424">
        <ele>926</ele>
        <time>2017-07-30T07:44:02Z</time>
      </trkpt>
      <trkpt lat="42.6039" lon="-0.12425">
        <ele>926</ele>
        <time>2017-07-30T07:44:04Z</time>
      </trkpt>
      <trkpt lat="42.60387" lon="-0.12427">
        <ele>926</ele>
        <time>2017-07-30T07:44:05Z</time>
      </trkpt>
      <trkpt lat="42.60382" lon="-0.12429">
        <ele>926</ele>
        <time>2017-07-30T07:44:07Z</time>
      </trkpt>
      <trkpt lat="42.60377" lon="-0.1243">
        <ele>925.8</ele>
        <time>2017-07-30T07:44:09Z</time>
      </trkpt>
      <trkpt lat="42.60374" lon="-0.12429">
        <ele>925.6</ele>
        <time>2017-07-30T07:44:10Z</time>
      </trkpt>
      <trkpt lat="42.60371" lon="-0.12428">
        <ele>925.3</ele>
        <time>2017-07-30T07:44:11Z</time>
      </trkpt>
      <trkpt lat="42.60368" lon="-0.12426">
        <ele>925.1</ele>
        <time>2017-07-30T07:44:12Z</time>
      </trkpt>
      <trkpt lat="42.60366" lon="-0.12425">
        <ele>924.8</ele>
        <time>2017-07-30T07:44:13Z</time>
      </trkpt>
      <trkpt lat="42.60363" lon="-0.12423">
        <ele>924.5</ele>
        <time>2017-07-30T07:44:14Z</time>
      </trkpt>
      <trkpt lat="42.6036" lon="-0.12422">
        <ele>924.2</ele>
        <time>2017-07-30T07:44:15Z</time>
      </trkpt>
      <trkpt lat="42.60358" lon="-0.1242">
        <ele>924</ele>
        <time>2017-07-30T07:44:16Z</time>
      </trkpt>
      <trkpt lat="42.60353" lon="-0.12418">
        <ele>923.5</ele>
        <time>2017-07-30T07:44:18Z</time>
      </trkpt>
      <trkpt lat="42.6035" lon="-0.12416">
        <ele>923.3</ele>
        <time>2017-07-30T07:44:19Z</time>
      </trkpt>
      <trkpt lat="42.60345" lon="-0.12414">
        <ele>922.9</ele>
        <time>2017-07-30T07:44:21Z</time>
      </trkpt>
      <trkpt lat="42.6034" lon="-0.12411">
        <ele>922.4</ele>
        <time>2017-07-30T07:44:23Z</time>
      </trkpt>
      <trkpt lat="42.60337" lon="-0.1241">
        <ele>922.1</ele>
        <time>2017-07-30T07:44:24Z</time>
      </trkpt>
      <trkpt lat="42.60334" lon="-0.1241">
        <ele>921.8</ele>
        <time>2017-07-30T07:44:25Z</time>
      </trkpt>
      <trkpt lat="42.60331" lon="-0.12409">
        <ele>921.5</ele>
        <time>2017-07-30T07:44:26Z</time>
      </trkpt>
      <trkpt lat="42.60328" lon="-0.12408">
        <ele>920.9</ele>
        <time>2017-07-30T07:44:27Z</time>
      </trkpt>
      <trkpt lat="42.60324" lon="-0.12407">
        <ele>920</ele>
        <time>2017-07-30T07:44:28Z</time>
      </trkpt>
      <trkpt lat="42.6032" lon="-0.12405">
        <ele>919.1</ele>
        <time>2017-07-30T07:44:29Z</time>
      </trkpt>
      <trkpt lat="42.60317" lon="-0.12403">
        <ele>918.2</ele>
        <time>2017-07-30T07:44:30Z</time>
      </trkpt>
      <trkpt lat="42.60313" lon="-0.124">
        <ele>917.2</ele>
        <time>2017-07-30T07:44:31Z</time>
      </trkpt>
      <trkpt lat="42.60309" lon="-0.12396">
        <ele>916.1</ele>
        <time>2017-07-30T07:44:32Z</time>
      </trkpt>
      <trkpt lat="42.60306" lon="-0.12391">
        <ele>915.2</ele>
        <time>2017-07-30T07:44:33Z</time>
      </trkpt>
      <trkpt lat="42.60302" lon="-0.12386">
        <ele>914.3</ele>
        <time>2017-07-30T07:44:34Z</time>
      </trkpt>
      <trkpt lat="42.60299" lon="-0.1238">
        <ele>913.8</ele>
        <time>2017-07-30T07:44:35Z</time>
      </trkpt>
      <trkpt lat="42.60296" lon="-0.12375">
        <ele>913.3</ele>
        <time>2017-07-30T07:44:36Z</time>
      </trkpt>
      <trkpt lat="42.60291" lon="-0.12369">
        <ele>912.6</ele>
        <time>2017-07-30T07:44:37Z</time>
      </trkpt>
      <trkpt lat="42.60286" lon="-0.12365">
        <ele>912</ele>
        <time>2017-07-30T07:44:38Z</time>
      </trkpt>
      <trkpt lat="42.60281" lon="-0.12361">
        <ele>911.6</ele>
        <time>2017-07-30T07:44:39Z</time>
      </trkpt>
      <trkpt lat="42.60276" lon="-0.12358">
        <ele>911.3</ele>
        <time>2017-07-30T07:44:40Z</time>
      </trkpt>
      <trkpt lat="42.60269" lon="-0.12356">
        <ele>911</ele>
        <time>2017-07-30T07:44:41Z</time>
      </trkpt>
      <trkpt lat="42.60262" lon="-0.12355">
        <ele>910.6</ele>
        <time>2017-07-30T07:44:42Z</time>
      </trkpt>
      <trkpt lat="42.60256" lon="-0.12355">
        <ele>910.2</ele>
        <time>2017-07-30T07:44:43Z</time>
      </trkpt>
      <trkpt lat="42.60249" lon="-0.12355">
        <ele>909.8</ele>
        <time>2017-07-30T07:44:44Z</time>
      </trkpt>
      <trkpt lat="42.60242" lon="-0.12354">
        <ele>909.5</ele>
        <time>2017-07-30T07:44:45Z</time>
      </trkpt>
      <trkpt lat="42.60235" lon="-0.12354">
        <ele>909.1</ele>
        <time>2017-07-30T07:44:46Z</time>
      </trkpt>
      <trkpt lat="42.60229" lon="-0.12354">
        <ele>908.7</ele>
        <time>2017-07-30T07:44:47Z</time>
      </trkpt>
      <trkpt lat="42.60223" lon="-0.12354">
        <ele>908.4</ele>
        <time>2017-07-30T07:44:48Z</time>
      </trkpt>
      <trkpt lat="42.60217" lon="-0.12354">
        <ele>908.1</ele>
        <time>2017-07-30T07:44:49Z</time>
      </trkpt>
      <trkpt lat="42.60212" lon="-0.12356">
        <ele>907.7</ele>
        <time>2017-07-30T07:44:50Z</time>
      </trkpt>
      <trkpt lat="42.60207" lon="-0.12357">
        <ele>907.4</ele>
        <time>2017-07-30T07:44:51Z</time>
      </trkpt>
      <trkpt lat="42.60203" lon="-0.1236">
        <ele>907.1</ele>
        <time>2017-07-30T07:44:52Z</time>
      </trkpt>
      <trkpt lat="42.60199" lon="-0.12362">
        <ele>907.3</ele>
        <time>2017-07-30T07:44:53Z</time>
      </trkpt>
      <trkpt lat="42.60195" lon="-0.12366">
        <ele>907.6</ele>
        <time>2017-07-30T07:44:54Z</time>
      </trkpt>
      <trkpt lat="42.60192" lon="-0.12368">
        <ele>907.9</ele>
        <time>2017-07-30T07:44:55Z</time>
      </trkpt>
      <trkpt lat="42.60189" lon="-0.12371">
        <ele>908.2</ele>
        <time>2017-07-30T07:44:56Z</time>
      </trkpt>
      <trkpt lat="42.60186" lon="-0.12373">
        <ele>908.4</ele>
        <time>2017-07-30T07:44:57Z</time>
      </trkpt>
      <trkpt lat="42.60184" lon="-0.12376">
        <ele>908.5</ele>
        <time>2017-07-30T07:44:58Z</time>
      </trkpt>
      <trkpt lat="42.60182" lon="-0.1238">
        <ele>908.6</ele>
        <time>2017-07-30T07:44:59Z</time>
      </trkpt>
      <trkpt lat="42.6018" lon="-0.12383">
        <ele>908.7</ele>
        <time>2017-07-30T07:45:00Z</time>
      </trkpt>
      <trkpt lat="42.60178" lon="-0.12387">
        <ele>908.8</ele>
        <time>2017-07-30T07:45:01Z</time>
      </trkpt>
      <trkpt lat="42.60175" lon="-0.1239">
        <ele>908.9</ele>
        <time>2017-07-30T07:45:02Z</time>
      </trkpt>
      <trkpt lat="42.60173" lon="-0.12393">
        <ele>909</ele>
        <time>2017-07-30T07:45:03Z</time>
      </trkpt>
      <trkpt lat="42.60171" lon="-0.12396">
        <ele>909.1</ele>
        <time>2017-07-30T07:45:04Z</time>
      </trkpt>
      <trkpt lat="42.60169" lon="-0.12399">
        <ele>909.2</ele>
        <time>2017-07-30T07:45:05Z</time>
      </trkpt>
      <trkpt lat="42.60167" lon="-0.12403">
        <ele>909.2</ele>
        <time>2017-07-30T07:45:06Z</time>
      </trkpt>
      <trkpt lat="42.60165" lon="-0.12406">
        <ele>909.3</ele>
        <time>2017-07-30T07:45:07Z</time>
      </trkpt>
      <trkpt lat="42.60164" lon="-0.1241">
        <ele>909.4</ele>
        <time>2017-07-30T07:45:08Z</time>
      </trkpt>
      <trkpt lat="42.60162" lon="-0.12414">
        <ele>909.5</ele>
        <time>2017-07-30T07:45:09Z</time>
      </trkpt>
      <trkpt lat="42.6016" lon="-0.12417">
        <ele>909.6</ele>
        <time>2017-07-30T07:45:10Z</time>
      </trkpt>
      <trkpt lat="42.60158" lon="-0.12421">
        <ele>909.7</ele>
        <time>2017-07-30T07:45:11Z</time>
      </trkpt>
      <trkpt lat="42.60156" lon="-0.12424">
        <ele>909.7</ele>
        <time>2017-07-30T07:45:12Z</time>
      </trkpt>
      <trkpt lat="42.60154" lon="-0.12428">
        <ele>909.8</ele>
        <time>2017-07-30T07:45:13Z</time>
      </trkpt>
      <trkpt lat="42.60152" lon="-0.1243">
        <ele>909.9</ele>
        <time>2017-07-30T07:45:14Z</time>
      </trkpt>
      <trkpt lat="42.60149" lon="-0.12433">
        <ele>910</ele>
        <time>2017-07-30T07:45:15Z</time>
      </trkpt>
      <trkpt lat="42.60146" lon="-0.12436">
        <ele>910.1</ele>
        <time>2017-07-30T07:45:16Z</time>
      </trkpt>
      <trkpt lat="42.60143" lon="-0.12438">
        <ele>910.2</ele>
        <time>2017-07-30T07:45:17Z</time>
      </trkpt>
      <trkpt lat="42.6014" lon="-0.12441">
        <ele>910.2</ele>
        <time>2017-07-30T07:45:18Z</time>
      </trkpt>
      <trkpt lat="42.60137" lon="-0.12443">
        <ele>910.3</ele>
        <time>2017-07-30T07:45:19Z</time>
      </trkpt>
      <trkpt lat="42.60133" lon="-0.12445">
        <ele>910.3</ele>
        <time>2017-07-30T07:45:20Z</time>
      </trkpt>
      <trkpt lat="42.60129" lon="-0.12448">
        <ele>910.4</ele>
        <time>2017-07-30T07:45:21Z</time>
      </trkpt>
      <trkpt lat="42.60126" lon="-0.12452">
        <ele>910.5</ele>
        <time>2017-07-30T07:45:22Z</time>
      </trkpt>
      <trkpt lat="42.60123" lon="-0.12456">
        <ele>910.5</ele>
        <time>2017-07-30T07:45:23Z</time>
      </trkpt>
      <trkpt lat="42.6012" lon="-0.12461">
        <ele>910.6</ele>
        <time>2017-07-30T07:45:24Z</time>
      </trkpt>
      <trkpt lat="42.60118" lon="-0.12467">
        <ele>910.7</ele>
        <time>2017-07-30T07:45:25Z</time>
      </trkpt>
      <trkpt lat="42.60116" lon="-0.12474">
        <ele>910.8</ele>
        <time>2017-07-30T07:45:26Z</time>
      </trkpt>
      <trkpt lat="42.60115" lon="-0.1248">
        <ele>910.9</ele>
        <time>2017-07-30T07:45:27Z</time>
      </trkpt>
      <trkpt lat="42.60113" lon="-0.12487">
        <ele>911.1</ele>
        <time>2017-07-30T07:45:28Z</time>
      </trkpt>
      <trkpt lat="42.60112" lon="-0.12492">
        <ele>911.2</ele>
        <time>2017-07-30T07:45:29Z</time>
      </trkpt>
      <trkpt lat="42.60111" lon="-0.12498">
        <ele>911.3</ele>
        <time>2017-07-30T07:45:30Z</time>
      </trkpt>
      <trkpt lat="42.6011" lon="-0.12504">
        <ele>911.4</ele>
        <time>2017-07-30T07:45:31Z</time>
      </trkpt>
      <trkpt lat="42.60108" lon="-0.12511">
        <ele>911.5</ele>
        <time>2017-07-30T07:45:32Z</time>
      </trkpt>
      <trkpt lat="42.60107" lon="-0.12517">
        <ele>911.6</ele>
        <time>2017-07-30T07:45:33Z</time>
      </trkpt>
      <trkpt lat="42.60106" lon="-0.12523">
        <ele>911.8</ele>
        <time>2017-07-30T07:45:34Z</time>
      </trkpt>
      <trkpt lat="42.60104" lon="-0.12529">
        <ele>911.9</ele>
        <time>2017-07-30T07:45:35Z</time>
      </trkpt>
      <trkpt lat="42.60102" lon="-0.12534">
        <ele>912.1</ele>
        <time>2017-07-30T07:45:36Z</time>
      </trkpt>
      <trkpt lat="42.601" lon="-0.1254">
        <ele>912.4</ele>
        <time>2017-07-30T07:45:37Z</time>
      </trkpt>
      <trkpt lat="42.60099" lon="-0.12545">
        <ele>912.6</ele>
        <time>2017-07-30T07:45:38Z</time>
      </trkpt>
      <trkpt lat="42.60097" lon="-0.12551">
        <ele>912.8</ele>
        <time>2017-07-30T07:45:39Z</time>
      </trkpt>
      <trkpt lat="42.60096" lon="-0.12556">
        <ele>913.1</ele>
        <time>2017-07-30T07:45:40Z</time>
      </trkpt>
      <trkpt lat="42.60095" lon="-0.12561">
        <ele>913.3</ele>
        <time>2017-07-30T07:45:41Z</time>
      </trkpt>
      <trkpt lat="42.60094" lon="-0.12566">
        <ele>913.5</ele>
        <time>2017-07-30T07:45:42Z</time>
      </trkpt>
      <trkpt lat="42.60092" lon="-0.12572">
        <ele>913.8</ele>
        <time>2017-07-30T07:45:43Z</time>
      </trkpt>
      <trkpt lat="42.6009" lon="-0.12577">
        <ele>914.1</ele>
        <time>2017-07-30T07:45:44Z</time>
      </trkpt>
      <trkpt lat="42.60089" lon="-0.12582">
        <ele>914.3</ele>
        <time>2017-07-30T07:45:45Z</time>
      </trkpt>
      <trkpt lat="42.60087" lon="-0.12588">
        <ele>914.6</ele>
        <time>2017-07-30T07:45:46Z</time>
      </trkpt>
      <trkpt lat="42.60086" lon="-0.12594">
        <ele>914.8</ele>
        <time>2017-07-30T07:45:47Z</time>
      </trkpt>
      <trkpt lat="42.60085" lon="-0.12599">
        <ele>915</ele>
        <time>2017-07-30T07:45:48Z</time>
      </trkpt>
      <trkpt lat="42.60084" lon="-0.12604">
        <ele>915.2</ele>
        <time>2017-07-30T07:45:49Z</time>
      </trkpt>
      <trkpt lat="42.60083" lon="-0.12609">
        <ele>915.4</ele>
        <time>2017-07-30T07:45:50Z</time>
      </trkpt>
      <trkpt lat="42.60082" lon="-0.12615">
        <ele>915.6</ele>
        <time>2017-07-30T07:45:51Z</time>
      </trkpt>
      <trkpt lat="42.60081" lon="-0.1262">
        <ele>915.9</ele>
        <time>2017-07-30T07:45:52Z</time>
      </trkpt>
      <trkpt lat="42.6008" lon="-0.12625">
        <ele>916.2</ele>
        <time>2017-07-30T07:45:53Z</time>
      </trkpt>
      <trkpt lat="42.6008" lon="-0.1263">
        <ele>916.5</ele>
        <time>2017-07-30T07:45:54Z</time>
      </trkpt>
      <trkpt lat="42.60079" lon="-0.12635">
        <ele>916.8</ele>
        <time>2017-07-30T07:45:55Z</time>
      </trkpt>
      <trkpt lat="42.60079" lon="-0.12639">
        <ele>917.1</ele>
        <time>2017-07-30T07:45:56Z</time>
      </trkpt>
      <trkpt lat="42.60078" lon="-0.12644">
        <ele>917.4</ele>
        <time>2017-07-30T07:45:57Z</time>
      </trkpt>
      <trkpt lat="42.60076" lon="-0.12649">
        <ele>917.8</ele>
        <time>2017-07-30T07:45:58Z</time>
      </trkpt>
      <trkpt lat="42.60074" lon="-0.12653">
        <ele>918.1</ele>
        <time>2017-07-30T07:45:59Z</time>
      </trkpt>
      <trkpt lat="42.60072" lon="-0.12657">
        <ele>918.5</ele>
        <time>2017-07-30T07:46:00Z</time>
      </trkpt>
      <trkpt lat="42.60069" lon="-0.12661">
        <ele>918.8</ele>
        <time>2017-07-30T07:46:01Z</time>
      </trkpt>
      <trkpt lat="42.60067" lon="-0.12664">
        <ele>919.2</ele>
        <time>2017-07-30T07:46:02Z</time>
      </trkpt>
      <trkpt lat="42.60064" lon="-0.12668">
        <ele>919.6</ele>
        <time>2017-07-30T07:46:03Z</time>
      </trkpt>
      <trkpt lat="42.60062" lon="-0.12671">
        <ele>920</ele>
        <time>2017-07-30T07:46:04Z</time>
      </trkpt>
      <trkpt lat="42.60059" lon="-0.12675">
        <ele>920.4</ele>
        <time>2017-07-30T07:46:05Z</time>
      </trkpt>
      <trkpt lat="42.60056" lon="-0.12678">
        <ele>920.8</ele>
        <time>2017-07-30T07:46:06Z</time>
      </trkpt>
      <trkpt lat="42.60053" lon="-0.12682">
        <ele>921.3</ele>
        <time>2017-07-30T07:46:07Z</time>
      </trkpt>
      <trkpt lat="42.6005" lon="-0.12685">
        <ele>921.7</ele>
        <time>2017-07-30T07:46:08Z</time>
      </trkpt>
      <trkpt lat="42.60047" lon="-0.12688">
        <ele>921.8</ele>
        <time>2017-07-30T07:46:09Z</time>
      </trkpt>
      <trkpt lat="42.60044" lon="-0.1269">
        <ele>921.7</ele>
        <time>2017-07-30T07:46:10Z</time>
      </trkpt>
      <trkpt lat="42.6004" lon="-0.12693">
        <ele>921.5</ele>
        <time>2017-07-30T07:46:12Z</time>
      </trkpt>
      <trkpt lat="42.60035" lon="-0.12696">
        <ele>921.4</ele>
        <time>2017-07-30T07:46:14Z</time>
      </trkpt>
      <trkpt lat="42.60032" lon="-0.12699">
        <ele>921.3</ele>
        <time>2017-07-30T07:46:16Z</time>
      </trkpt>
      <trkpt lat="42.60028" lon="-0.12702">
        <ele>921.2</ele>
        <time>2017-07-30T07:46:18Z</time>
      </trkpt>
      <trkpt lat="42.60024" lon="-0.12704">
        <ele>921.1</ele>
        <time>2017-07-30T07:46:20Z</time>
      </trkpt>
      <trkpt lat="42.6002" lon="-0.12706">
        <ele>921</ele>
        <time>2017-07-30T07:46:22Z</time>
      </trkpt>
      <trkpt lat="42.60016" lon="-0.12709">
        <ele>920.9</ele>
        <time>2017-07-30T07:46:24Z</time>
      </trkpt>
      <trkpt lat="42.60013" lon="-0.12712">
        <ele>920.8</ele>
        <time>2017-07-30T07:46:26Z</time>
      </trkpt>
      <trkpt lat="42.60009" lon="-0.12715">
        <ele>920.7</ele>
        <time>2017-07-30T07:46:28Z</time>
      </trkpt>
      <trkpt lat="42.60005" lon="-0.12718">
        <ele>920.7</ele>
        <time>2017-07-30T07:46:30Z</time>
      </trkpt>
      <trkpt lat="42.60002" lon="-0.12721">
        <ele>920.6</ele>
        <time>2017-07-30T07:46:32Z</time>
      </trkpt>
      <trkpt lat="42.59998" lon="-0.12725">
        <ele>920.5</ele>
        <time>2017-07-30T07:46:34Z</time>
      </trkpt>
      <trkpt lat="42.59995" lon="-0.12728">
        <ele>920.5</ele>
        <time>2017-07-30T07:46:36Z</time>
      </trkpt>
      <trkpt lat="42.59992" lon="-0.1273">
        <ele>920.4</ele>
        <time>2017-07-30T07:46:38Z</time>
      </trkpt>
      <trkpt lat="42.59989" lon="-0.12733">
        <ele>920.3</ele>
        <time>2017-07-30T07:46:40Z</time>
      </trkpt>
      <trkpt lat="42.59986" lon="-0.12736">
        <ele>920.3</ele>
        <time>2017-07-30T07:46:42Z</time>
      </trkpt>
      <trkpt lat="42.59983" lon="-0.12739">
        <ele>920.2</ele>
        <time>2017-07-30T07:46:44Z</time>
      </trkpt>
      <trkpt lat="42.5998" lon="-0.12742">
        <ele>920.1</ele>
        <time>2017-07-30T07:46:46Z</time>
      </trkpt>
      <trkpt lat="42.59976" lon="-0.12745">
        <ele>920.1</ele>
        <time>2017-07-30T07:46:48Z</time>
      </trkpt>
      <trkpt lat="42.59972" lon="-0.12747">
        <ele>920</ele>
        <time>2017-07-30T07:46:50Z</time>
      </trkpt>
      <trkpt lat="42.59969" lon="-0.12749">
        <ele>920.3</ele>
        <time>2017-07-30T07:46:52Z</time>
      </trkpt>
      <trkpt lat="42.59966" lon="-0.12749">
        <ele>920.5</ele>
        <time>2017-07-30T07:46:54Z</time>
      </trkpt>
      <trkpt lat="42.59962" lon="-0.12748">
        <ele>920.7</ele>
        <time>2017-07-30T07:46:56Z</time>
      </trkpt>
      <trkpt lat="42.59959" lon="-0.12747">
        <ele>920.7</ele>
        <time>2017-07-30T07:46:58Z</time>
      </trkpt>
      <trkpt lat="42.59955" lon="-0.12745">
        <ele>920</ele>
        <time>2017-07-30T07:47:00Z</time>
      </trkpt>
      <trkpt lat="42.59951" lon="-0.12744">
        <ele>920</ele>
        <time>2017-07-30T07:47:02Z</time>
      </trkpt>
      <trkpt lat="42.59947" lon="-0.12742">
        <ele>920</ele>
        <time>2017-07-30T07:47:04Z</time>
      </trkpt>
      <trkpt lat="42.59944" lon="-0.1274">
        <ele>920</ele>
        <time>2017-07-30T07:47:06Z</time>
      </trkpt>
      <trkpt lat="42.59941" lon="-0.1274">
        <ele>920</ele>
        <time>2017-07-30T07:47:08Z</time>
      </trkpt>
      <trkpt lat="42.59942" lon="-0.12746">
        <ele>920.4</ele>
        <time>2017-07-30T07:47:11Z</time>
      </trkpt>
      <trkpt lat="42.59946" lon="-0.1275">
        <ele>920.8</ele>
        <time>2017-07-30T07:47:13Z</time>
      </trkpt>
      <trkpt lat="42.5995" lon="-0.12752">
        <ele>921.3</ele>
        <time>2017-07-30T07:47:15Z</time>
      </trkpt>
      <trkpt lat="42.59955" lon="-0.12755">
        <ele>921.9</ele>
        <time>2017-07-30T07:47:17Z</time>
      </trkpt>
      <trkpt lat="42.59959" lon="-0.12759">
        <ele>922.5</ele>
        <time>2017-07-30T07:47:19Z</time>
      </trkpt>
      <trkpt lat="42.59963" lon="-0.12764">
        <ele>923.1</ele>
        <time>2017-07-30T07:47:21Z</time>
      </trkpt>
      <trkpt lat="42.59965" lon="-0.12766">
        <ele>923.4</ele>
        <time>2017-07-30T07:47:22Z</time>
      </trkpt>
      <trkpt lat="42.59968" lon="-0.12769">
        <ele>923.7</ele>
        <time>2017-07-30T07:47:23Z</time>
      </trkpt>
      <trkpt lat="42.5997" lon="-0.12771">
        <ele>923.9</ele>
        <time>2017-07-30T07:47:24Z</time>
      </trkpt>
      <trkpt lat="42.59972" lon="-0.12773">
        <ele>924.2</ele>
        <time>2017-07-30T07:47:25Z</time>
      </trkpt>
      <trkpt lat="42.59975" lon="-0.12775">
        <ele>924.4</ele>
        <time>2017-07-30T07:47:26Z</time>
      </trkpt>
      <trkpt lat="42.59977" lon="-0.12778">
        <ele>924.6</ele>
        <time>2017-07-30T07:47:27Z</time>
      </trkpt>
      <trkpt lat="42.59979" lon="-0.1278">
        <ele>924.8</ele>
        <time>2017-07-30T07:47:28Z</time>
      </trkpt>
      <trkpt lat="42.59981" lon="-0.12782">
        <ele>925</ele>
        <time>2017-07-30T07:47:29Z</time>
      </trkpt>
      <trkpt lat="42.59983" lon="-0.12784">
        <ele>925.2</ele>
        <time>2017-07-30T07:47:30Z</time>
      </trkpt>
      <trkpt lat="42.59988" lon="-0.12789">
        <ele>925.7</ele>
        <time>2017-07-30T07:47:32Z</time>
      </trkpt>
      <trkpt lat="42.59992" lon="-0.12793">
        <ele>926.3</ele>
        <time>2017-07-30T07:47:34Z</time>
      </trkpt>
      <trkpt lat="42.59995" lon="-0.12798">
        <ele>927</ele>
        <time>2017-07-30T07:47:36Z</time>
      </trkpt>
      <trkpt lat="42.59999" lon="-0.12802">
        <ele>927.6</ele>
        <time>2017-07-30T07:47:38Z</time>
      </trkpt>
      <trkpt lat="42.60003" lon="-0.12807">
        <ele>928.4</ele>
        <time>2017-07-30T07:47:40Z</time>
      </trkpt>
      <trkpt lat="42.60007" lon="-0.1281">
        <ele>929</ele>
        <time>2017-07-30T07:47:42Z</time>
      </trkpt>
      <trkpt lat="42.60012" lon="-0.12811">
        <ele>929.5</ele>
        <time>2017-07-30T07:47:44Z</time>
      </trkpt>
      <trkpt lat="42.60017" lon="-0.12811">
        <ele>930.1</ele>
        <time>2017-07-30T07:47:46Z</time>
      </trkpt>
      <trkpt lat="42.6002" lon="-0.12811">
        <ele>930.3</ele>
        <time>2017-07-30T07:47:47Z</time>
      </trkpt>
      <trkpt lat="42.60023" lon="-0.1281">
        <ele>930.6</ele>
        <time>2017-07-30T07:47:48Z</time>
      </trkpt>
      <trkpt lat="42.60025" lon="-0.12809">
        <ele>930.8</ele>
        <time>2017-07-30T07:47:49Z</time>
      </trkpt>
      <trkpt lat="42.60028" lon="-0.12808">
        <ele>931.1</ele>
        <time>2017-07-30T07:47:50Z</time>
      </trkpt>
      <trkpt lat="42.60031" lon="-0.12806">
        <ele>931.3</ele>
        <time>2017-07-30T07:47:51Z</time>
      </trkpt>
      <trkpt lat="42.60033" lon="-0.12805">
        <ele>931.4</ele>
        <time>2017-07-30T07:47:52Z</time>
      </trkpt>
      <trkpt lat="42.60036" lon="-0.12804">
        <ele>931.6</ele>
        <time>2017-07-30T07:47:53Z</time>
      </trkpt>
      <trkpt lat="42.60039" lon="-0.12803">
        <ele>931.8</ele>
        <time>2017-07-30T07:47:54Z</time>
      </trkpt>
      <trkpt lat="42.60041" lon="-0.12801">
        <ele>931.9</ele>
        <time>2017-07-30T07:47:55Z</time>
      </trkpt>
      <trkpt lat="42.60044" lon="-0.12799">
        <ele>932.1</ele>
        <time>2017-07-30T07:47:56Z</time>
      </trkpt>
      <trkpt lat="42.60046" lon="-0.12798">
        <ele>932.3</ele>
        <time>2017-07-30T07:47:57Z</time>
      </trkpt>
      <trkpt lat="42.60051" lon="-0.12794">
        <ele>932.7</ele>
        <time>2017-07-30T07:47:59Z</time>
      </trkpt>
      <trkpt lat="42.60055" lon="-0.12791">
        <ele>933.2</ele>
        <time>2017-07-30T07:48:01Z</time>
      </trkpt>
      <trkpt lat="42.60059" lon="-0.12787">
        <ele>933.6</ele>
        <time>2017-07-30T07:48:03Z</time>
      </trkpt>
      <trkpt lat="42.60063" lon="-0.12784">
        <ele>934.1</ele>
        <time>2017-07-30T07:48:05Z</time>
      </trkpt>
      <trkpt lat="42.60067" lon="-0.12781">
        <ele>934.6</ele>
        <time>2017-07-30T07:48:07Z</time>
      </trkpt>
      <trkpt lat="42.60071" lon="-0.12777">
        <ele>935.1</ele>
        <time>2017-07-30T07:48:09Z</time>
      </trkpt>
      <trkpt lat="42.60074" lon="-0.12773">
        <ele>935.6</ele>
        <time>2017-07-30T07:48:11Z</time>
      </trkpt>
      <trkpt lat="42.60077" lon="-0.12768">
        <ele>936.1</ele>
        <time>2017-07-30T07:48:13Z</time>
      </trkpt>
      <trkpt lat="42.60081" lon="-0.12763">
        <ele>936.7</ele>
        <time>2017-07-30T07:48:15Z</time>
      </trkpt>
      <trkpt lat="42.60084" lon="-0.12758">
        <ele>937.2</ele>
        <time>2017-07-30T07:48:17Z</time>
      </trkpt>
      <trkpt lat="42.60087" lon="-0.12753">
        <ele>937.8</ele>
        <time>2017-07-30T07:48:19Z</time>
      </trkpt>
      <trkpt lat="42.6009" lon="-0.12748">
        <ele>938.3</ele>
        <time>2017-07-30T07:48:21Z</time>
      </trkpt>
      <trkpt lat="42.60093" lon="-0.12743">
        <ele>938.7</ele>
        <time>2017-07-30T07:48:23Z</time>
      </trkpt>
      <trkpt lat="42.60096" lon="-0.12739">
        <ele>939.1</ele>
        <time>2017-07-30T07:48:25Z</time>
      </trkpt>
      <trkpt lat="42.60099" lon="-0.12735">
        <ele>939.6</ele>
        <time>2017-07-30T07:48:27Z</time>
      </trkpt>
      <trkpt lat="42.60101" lon="-0.12732">
        <ele>940</ele>
        <time>2017-07-30T07:48:29Z</time>
      </trkpt>
      <trkpt lat="42.60104" lon="-0.12729">
        <ele>940.6</ele>
        <time>2017-07-30T07:48:32Z</time>
      </trkpt>
      <trkpt lat="42.60107" lon="-0.12725">
        <ele>941.4</ele>
        <time>2017-07-30T07:48:34Z</time>
      </trkpt>
      <trkpt lat="42.60109" lon="-0.1272">
        <ele>942.3</ele>
        <time>2017-07-30T07:48:36Z</time>
      </trkpt>
      <trkpt lat="42.60111" lon="-0.12715">
        <ele>943.1</ele>
        <time>2017-07-30T07:48:38Z</time>
      </trkpt>
      <trkpt lat="42.60111" lon="-0.12709">
        <ele>944</ele>
        <time>2017-07-30T07:48:40Z</time>
      </trkpt>
      <trkpt lat="42.60111" lon="-0.12703">
        <ele>944.9</ele>
        <time>2017-07-30T07:48:42Z</time>
      </trkpt>
      <trkpt lat="42.60112" lon="-0.12696">
        <ele>945.6</ele>
        <time>2017-07-30T07:48:44Z</time>
      </trkpt>
      <trkpt lat="42.60112" lon="-0.12691">
        <ele>946.4</ele>
        <time>2017-07-30T07:48:46Z</time>
      </trkpt>
      <trkpt lat="42.60112" lon="-0.12685">
        <ele>947.1</ele>
        <time>2017-07-30T07:48:48Z</time>
      </trkpt>
      <trkpt lat="42.60112" lon="-0.12679">
        <ele>947.8</ele>
        <time>2017-07-30T07:48:50Z</time>
      </trkpt>
      <trkpt lat="42.60113" lon="-0.12674">
        <ele>948.6</ele>
        <time>2017-07-30T07:48:52Z</time>
      </trkpt>
      <trkpt lat="42.60114" lon="-0.12668">
        <ele>949.3</ele>
        <time>2017-07-30T07:48:54Z</time>
      </trkpt>
      <trkpt lat="42.60116" lon="-0.12663">
        <ele>950.1</ele>
        <time>2017-07-30T07:48:56Z</time>
      </trkpt>
      <trkpt lat="42.60117" lon="-0.12659">
        <ele>950.7</ele>
        <time>2017-07-30T07:48:58Z</time>
      </trkpt>
      <trkpt lat="42.6012" lon="-0.12655">
        <ele>951.2</ele>
        <time>2017-07-30T07:49:00Z</time>
      </trkpt>
      <trkpt lat="42.60123" lon="-0.12651">
        <ele>951.9</ele>
        <time>2017-07-30T07:49:02Z</time>
      </trkpt>
      <trkpt lat="42.60125" lon="-0.12646">
        <ele>952.7</ele>
        <time>2017-07-30T07:49:04Z</time>
      </trkpt>
      <trkpt lat="42.60126" lon="-0.12641">
        <ele>953.6</ele>
        <time>2017-07-30T07:49:06Z</time>
      </trkpt>
      <trkpt lat="42.60127" lon="-0.12636">
        <ele>954.6</ele>
        <time>2017-07-30T07:49:08Z</time>
      </trkpt>
      <trkpt lat="42.60129" lon="-0.12631">
        <ele>955.5</ele>
        <time>2017-07-30T07:49:10Z</time>
      </trkpt>
      <trkpt lat="42.60131" lon="-0.12627">
        <ele>956.3</ele>
        <time>2017-07-30T07:49:12Z</time>
      </trkpt>
      <trkpt lat="42.60132" lon="-0.12623">
        <ele>957</ele>
        <time>2017-07-30T07:49:14Z</time>
      </trkpt>
      <trkpt lat="42.60134" lon="-0.1262">
        <ele>957.6</ele>
        <time>2017-07-30T07:49:16Z</time>
      </trkpt>
      <trkpt lat="42.60136" lon="-0.12616">
        <ele>958.3</ele>
        <time>2017-07-30T07:49:18Z</time>
      </trkpt>
      <trkpt lat="42.60139" lon="-0.12613">
        <ele>959</ele>
        <time>2017-07-30T07:49:20Z</time>
      </trkpt>
      <trkpt lat="42.60141" lon="-0.1261">
        <ele>959.7</ele>
        <time>2017-07-30T07:49:22Z</time>
      </trkpt>
      <trkpt lat="42.60144" lon="-0.12608">
        <ele>960.3</ele>
        <time>2017-07-30T07:49:24Z</time>
      </trkpt>
      <trkpt lat="42.60147" lon="-0.12607">
        <ele>961</ele>
        <time>2017-07-30T07:49:26Z</time>
      </trkpt>
      <trkpt lat="42.6015" lon="-0.12606">
        <ele>961.8</ele>
        <time>2017-07-30T07:49:28Z</time>
      </trkpt>
      <trkpt lat="42.60153" lon="-0.12605">
        <ele>962.6</ele>
        <time>2017-07-30T07:49:30Z</time>
      </trkpt>
      <trkpt lat="42.60156" lon="-0.12603">
        <ele>963.4</ele>
        <time>2017-07-30T07:49:32Z</time>
      </trkpt>
      <trkpt lat="42.60159" lon="-0.12602">
        <ele>964.1</ele>
        <time>2017-07-30T07:49:34Z</time>
      </trkpt>
      <trkpt lat="42.60162" lon="-0.12601">
        <ele>964.8</ele>
        <time>2017-07-30T07:49:36Z</time>
      </trkpt>
      <trkpt lat="42.60166" lon="-0.126">
        <ele>965.7</ele>
        <time>2017-07-30T07:49:39Z</time>
      </trkpt>
      <trkpt lat="42.60169" lon="-0.12599">
        <ele>966.5</ele>
        <time>2017-07-30T07:49:41Z</time>
      </trkpt>
      <trkpt lat="42.60172" lon="-0.12597">
        <ele>967.3</ele>
        <time>2017-07-30T07:49:43Z</time>
      </trkpt>
      <trkpt lat="42.60175" lon="-0.12596">
        <ele>968.2</ele>
        <time>2017-07-30T07:49:45Z</time>
      </trkpt>
      <trkpt lat="42.60178" lon="-0.12596">
        <ele>968.4</ele>
        <time>2017-07-30T07:49:47Z</time>
      </trkpt>
      <trkpt lat="42.60182" lon="-0.12597">
        <ele>968.7</ele>
        <time>2017-07-30T07:49:49Z</time>
      </trkpt>
      <trkpt lat="42.60185" lon="-0.12598">
        <ele>968.9</ele>
        <time>2017-07-30T07:49:51Z</time>
      </trkpt>
      <trkpt lat="42.60188" lon="-0.12599">
        <ele>969.2</ele>
        <time>2017-07-30T07:49:53Z</time>
      </trkpt>
      <trkpt lat="42.60191" lon="-0.126">
        <ele>969.5</ele>
        <time>2017-07-30T07:49:55Z</time>
      </trkpt>
      <trkpt lat="42.60195" lon="-0.126">
        <ele>969.8</ele>
        <time>2017-07-30T07:49:57Z</time>
      </trkpt>
      <trkpt lat="42.60197" lon="-0.12601">
        <ele>970</ele>
        <time>2017-07-30T07:49:59Z</time>
      </trkpt>
      <trkpt lat="42.60201" lon="-0.12602">
        <ele>970.3</ele>
        <time>2017-07-30T07:50:01Z</time>
      </trkpt>
      <trkpt lat="42.60204" lon="-0.12603">
        <ele>970.6</ele>
        <time>2017-07-30T07:50:03Z</time>
      </trkpt>
      <trkpt lat="42.60207" lon="-0.12603">
        <ele>970.9</ele>
        <time>2017-07-30T07:50:05Z</time>
      </trkpt>
      <trkpt lat="42.60211" lon="-0.12604">
        <ele>971.2</ele>
        <time>2017-07-30T07:50:07Z</time>
      </trkpt>
      <trkpt lat="42.60215" lon="-0.12604">
        <ele>971.6</ele>
        <time>2017-07-30T07:50:09Z</time>
      </trkpt>
      <trkpt lat="42.60218" lon="-0.12604">
        <ele>971.9</ele>
        <time>2017-07-30T07:50:11Z</time>
      </trkpt>
      <trkpt lat="42.60222" lon="-0.12604">
        <ele>972.2</ele>
        <time>2017-07-30T07:50:13Z</time>
      </trkpt>
      <trkpt lat="42.60225" lon="-0.12605">
        <ele>972.6</ele>
        <time>2017-07-30T07:50:15Z</time>
      </trkpt>
      <trkpt lat="42.60228" lon="-0.12604">
        <ele>972.8</ele>
        <time>2017-07-30T07:50:27Z</time>
      </trkpt>
      <trkpt lat="42.6023" lon="-0.12602">
        <ele>973.1</ele>
        <time>2017-07-30T07:51:40Z</time>
      </trkpt>
      <trkpt lat="42.60233" lon="-0.12603">
        <ele>973.4</ele>
        <time>2017-07-30T07:51:42Z</time>
      </trkpt>
      <trkpt lat="42.60237" lon="-0.12604">
        <ele>973.8</ele>
        <time>2017-07-30T07:51:44Z</time>
      </trkpt>
      <trkpt lat="42.6024" lon="-0.12605">
        <ele>974.2</ele>
        <time>2017-07-30T07:51:46Z</time>
      </trkpt>
      <trkpt lat="42.60244" lon="-0.12605">
        <ele>974.6</ele>
        <time>2017-07-30T07:51:48Z</time>
      </trkpt>
      <trkpt lat="42.60248" lon="-0.12605">
        <ele>975.1</ele>
        <time>2017-07-30T07:51:50Z</time>
      </trkpt>
      <trkpt lat="42.60251" lon="-0.12605">
        <ele>975.5</ele>
        <time>2017-07-30T07:51:52Z</time>
      </trkpt>
      <trkpt lat="42.60255" lon="-0.12605">
        <ele>976</ele>
        <time>2017-07-30T07:51:54Z</time>
      </trkpt>
      <trkpt lat="42.60258" lon="-0.12604">
        <ele>976.5</ele>
        <time>2017-07-30T07:51:56Z</time>
      </trkpt>
      <trkpt lat="42.60262" lon="-0.12604">
        <ele>977</ele>
        <time>2017-07-30T07:51:58Z</time>
      </trkpt>
      <trkpt lat="42.60266" lon="-0.12604">
        <ele>977.5</ele>
        <time>2017-07-30T07:52:00Z</time>
      </trkpt>
      <trkpt lat="42.6027" lon="-0.12604">
        <ele>978</ele>
        <time>2017-07-30T07:52:02Z</time>
      </trkpt>
      <trkpt lat="42.60273" lon="-0.12604">
        <ele>978.3</ele>
        <time>2017-07-30T07:52:04Z</time>
      </trkpt>
      <trkpt lat="42.60276" lon="-0.12605">
        <ele>978.6</ele>
        <time>2017-07-30T07:52:06Z</time>
      </trkpt>
      <trkpt lat="42.60279" lon="-0.12605">
        <ele>978.9</ele>
        <time>2017-07-30T07:52:08Z</time>
      </trkpt>
      <trkpt lat="42.60282" lon="-0.12606">
        <ele>979</ele>
        <time>2017-07-30T07:52:10Z</time>
      </trkpt>
      <trkpt lat="42.60285" lon="-0.12608">
        <ele>979.2</ele>
        <time>2017-07-30T07:52:12Z</time>
      </trkpt>
      <trkpt lat="42.60288" lon="-0.1261">
        <ele>979.4</ele>
        <time>2017-07-30T07:52:14Z</time>
      </trkpt>
      <trkpt lat="42.60291" lon="-0.12613">
        <ele>979.8</ele>
        <time>2017-07-30T07:52:16Z</time>
      </trkpt>
      <trkpt lat="42.60294" lon="-0.12616">
        <ele>980</ele>
        <time>2017-07-30T07:52:18Z</time>
      </trkpt>
      <trkpt lat="42.60296" lon="-0.12619">
        <ele>980.3</ele>
        <time>2017-07-30T07:52:20Z</time>
      </trkpt>
      <trkpt lat="42.60297" lon="-0.12622">
        <ele>980.5</ele>
        <time>2017-07-30T07:52:22Z</time>
      </trkpt>
      <trkpt lat="42.60301" lon="-0.12625">
        <ele>980.9</ele>
        <time>2017-07-30T07:52:24Z</time>
      </trkpt>
      <trkpt lat="42.60305" lon="-0.12627">
        <ele>981.3</ele>
        <time>2017-07-30T07:52:26Z</time>
      </trkpt>
      <trkpt lat="42.6031" lon="-0.12629">
        <ele>981.8</ele>
        <time>2017-07-30T07:52:28Z</time>
      </trkpt>
      <trkpt lat="42.60314" lon="-0.1263">
        <ele>982.1</ele>
        <time>2017-07-30T07:52:30Z</time>
      </trkpt>
      <trkpt lat="42.60318" lon="-0.12631">
        <ele>982.5</ele>
        <time>2017-07-30T07:52:32Z</time>
      </trkpt>
      <trkpt lat="42.60322" lon="-0.12634">
        <ele>982.8</ele>
        <time>2017-07-30T07:52:34Z</time>
      </trkpt>
      <trkpt lat="42.60326" lon="-0.12638">
        <ele>983.1</ele>
        <time>2017-07-30T07:52:36Z</time>
      </trkpt>
      <trkpt lat="42.60329" lon="-0.12643">
        <ele>983.4</ele>
        <time>2017-07-30T07:52:38Z</time>
      </trkpt>
      <trkpt lat="42.60332" lon="-0.12647">
        <ele>983.8</ele>
        <time>2017-07-30T07:52:40Z</time>
      </trkpt>
      <trkpt lat="42.60336" lon="-0.12652">
        <ele>984.1</ele>
        <time>2017-07-30T07:52:42Z</time>
      </trkpt>
      <trkpt lat="42.60339" lon="-0.12656">
        <ele>984.4</ele>
        <time>2017-07-30T07:52:44Z</time>
      </trkpt>
      <trkpt lat="42.60342" lon="-0.12659">
        <ele>984.6</ele>
        <time>2017-07-30T07:52:46Z</time>
      </trkpt>
      <trkpt lat="42.60345" lon="-0.12662">
        <ele>984.9</ele>
        <time>2017-07-30T07:52:48Z</time>
      </trkpt>
      <trkpt lat="42.60349" lon="-0.12665">
        <ele>985.1</ele>
        <time>2017-07-30T07:52:50Z</time>
      </trkpt>
      <trkpt lat="42.60352" lon="-0.12667">
        <ele>985.3</ele>
        <time>2017-07-30T07:52:52Z</time>
      </trkpt>
      <trkpt lat="42.60355" lon="-0.1267">
        <ele>985.5</ele>
        <time>2017-07-30T07:52:54Z</time>
      </trkpt>
      <trkpt lat="42.60359" lon="-0.12672">
        <ele>985.7</ele>
        <time>2017-07-30T07:52:56Z</time>
      </trkpt>
      <trkpt lat="42.60363" lon="-0.12676">
        <ele>986</ele>
        <time>2017-07-30T07:52:58Z</time>
      </trkpt>
      <trkpt lat="42.60367" lon="-0.12679">
        <ele>986.4</ele>
        <time>2017-07-30T07:53:00Z</time>
      </trkpt>
      <trkpt lat="42.6037" lon="-0.12681">
        <ele>986.6</ele>
        <time>2017-07-30T07:53:02Z</time>
      </trkpt>
      <trkpt lat="42.60374" lon="-0.12682">
        <ele>986.8</ele>
        <time>2017-07-30T07:53:04Z</time>
      </trkpt>
      <trkpt lat="42.60378" lon="-0.12684">
        <ele>987</ele>
        <time>2017-07-30T07:53:06Z</time>
      </trkpt>
      <trkpt lat="42.60381" lon="-0.12685">
        <ele>987.3</ele>
        <time>2017-07-30T07:53:08Z</time>
      </trkpt>
      <trkpt lat="42.60385" lon="-0.12687">
        <ele>987.8</ele>
        <time>2017-07-30T07:53:10Z</time>
      </trkpt>
      <trkpt lat="42.60388" lon="-0.12689">
        <ele>988.4</ele>
        <time>2017-07-30T07:53:12Z</time>
      </trkpt>
      <trkpt lat="42.60392" lon="-0.12692">
        <ele>989</ele>
        <time>2017-07-30T07:53:14Z</time>
      </trkpt>
      <trkpt lat="42.60394" lon="-0.12695">
        <ele>989.5</ele>
        <time>2017-07-30T07:53:16Z</time>
      </trkpt>
      <trkpt lat="42.60393" lon="-0.127">
        <ele>990.1</ele>
        <time>2017-07-30T07:53:18Z</time>
      </trkpt>
      <trkpt lat="42.6039" lon="-0.12703">
        <ele>990.6</ele>
        <time>2017-07-30T07:53:20Z</time>
      </trkpt>
      <trkpt lat="42.60386" lon="-0.12702">
        <ele>991.2</ele>
        <time>2017-07-30T07:53:22Z</time>
      </trkpt>
      <trkpt lat="42.60382" lon="-0.12699">
        <ele>991.7</ele>
        <time>2017-07-30T07:53:24Z</time>
      </trkpt>
      <trkpt lat="42.60379" lon="-0.12697">
        <ele>992.1</ele>
        <time>2017-07-30T07:53:26Z</time>
      </trkpt>
      <trkpt lat="42.60375" lon="-0.12696">
        <ele>992.5</ele>
        <time>2017-07-30T07:53:28Z</time>
      </trkpt>
      <trkpt lat="42.60371" lon="-0.12696">
        <ele>992.9</ele>
        <time>2017-07-30T07:53:30Z</time>
      </trkpt>
      <trkpt lat="42.60367" lon="-0.12695">
        <ele>993.2</ele>
        <time>2017-07-30T07:53:32Z</time>
      </trkpt>
      <trkpt lat="42.60364" lon="-0.12693">
        <ele>993.5</ele>
        <time>2017-07-30T07:53:34Z</time>
      </trkpt>
      <trkpt lat="42.60361" lon="-0.12691">
        <ele>993.9</ele>
        <time>2017-07-30T07:53:36Z</time>
      </trkpt>
      <trkpt lat="42.60357" lon="-0.1269">
        <ele>994.2</ele>
        <time>2017-07-30T07:53:38Z</time>
      </trkpt>
      <trkpt lat="42.60354" lon="-0.12688">
        <ele>994.5</ele>
        <time>2017-07-30T07:53:40Z</time>
      </trkpt>
      <trkpt lat="42.6035" lon="-0.12688">
        <ele>994.8</ele>
        <time>2017-07-30T07:53:42Z</time>
      </trkpt>
      <trkpt lat="42.60347" lon="-0.12687">
        <ele>995.2</ele>
        <time>2017-07-30T07:53:44Z</time>
      </trkpt>
      <trkpt lat="42.60343" lon="-0.12685">
        <ele>995.5</ele>
        <time>2017-07-30T07:53:46Z</time>
      </trkpt>
      <trkpt lat="42.6034" lon="-0.12683">
        <ele>995.9</ele>
        <time>2017-07-30T07:53:48Z</time>
      </trkpt>
      <trkpt lat="42.60337" lon="-0.12682">
        <ele>996.2</ele>
        <time>2017-07-30T07:53:50Z</time>
      </trkpt>
      <trkpt lat="42.60333" lon="-0.12682">
        <ele>996.5</ele>
        <time>2017-07-30T07:53:52Z</time>
      </trkpt>
      <trkpt lat="42.6033" lon="-0.12681">
        <ele>996.9</ele>
        <time>2017-07-30T07:53:54Z</time>
      </trkpt>
      <trkpt lat="42.60326" lon="-0.12681">
        <ele>997.4</ele>
        <time>2017-07-30T07:53:56Z</time>
      </trkpt>
      <trkpt lat="42.60322" lon="-0.1268">
        <ele>997.8</ele>
        <time>2017-07-30T07:53:58Z</time>
      </trkpt>
      <trkpt lat="42.60319" lon="-0.12679">
        <ele>998.2</ele>
        <time>2017-07-30T07:54:00Z</time>
      </trkpt>
      <trkpt lat="42.60315" lon="-0.12679">
        <ele>998.6</ele>
        <time>2017-07-30T07:54:02Z</time>
      </trkpt>
      <trkpt lat="42.60311" lon="-0.12679">
        <ele>999.1</ele>
        <time>2017-07-30T07:54:04Z</time>
      </trkpt>
      <trkpt lat="42.60308" lon="-0.12678">
        <ele>999.5</ele>
        <time>2017-07-30T07:54:06Z</time>
      </trkpt>
      <trkpt lat="42.60304" lon="-0.12678">
        <ele>999.9</ele>
        <time>2017-07-30T07:54:08Z</time>
      </trkpt>
      <trkpt lat="42.60301" lon="-0.12678">
        <ele>1000.2</ele>
        <time>2017-07-30T07:54:10Z</time>
      </trkpt>
      <trkpt lat="42.60298" lon="-0.12677">
        <ele>1000.6</ele>
        <time>2017-07-30T07:54:12Z</time>
      </trkpt>
      <trkpt lat="42.60295" lon="-0.12677">
        <ele>1001</ele>
        <time>2017-07-30T07:54:14Z</time>
      </trkpt>
      <trkpt lat="42.60292" lon="-0.12677">
        <ele>1001.3</ele>
        <time>2017-07-30T07:54:16Z</time>
      </trkpt>
      <trkpt lat="42.60289" lon="-0.12677">
        <ele>1001.7</ele>
        <time>2017-07-30T07:54:18Z</time>
      </trkpt>
      <trkpt lat="42.60286" lon="-0.12678">
        <ele>1002</ele>
        <time>2017-07-30T07:54:20Z</time>
      </trkpt>
      <trkpt lat="42.60282" lon="-0.12679">
        <ele>1002.4</ele>
        <time>2017-07-30T07:54:23Z</time>
      </trkpt>
      <trkpt lat="42.60279" lon="-0.12679">
        <ele>1002.8</ele>
        <time>2017-07-30T07:54:25Z</time>
      </trkpt>
      <trkpt lat="42.60276" lon="-0.1268">
        <ele>1003.2</ele>
        <time>2017-07-30T07:54:27Z</time>
      </trkpt>
      <trkpt lat="42.60273" lon="-0.12681">
        <ele>1003.6</ele>
        <time>2017-07-30T07:54:29Z</time>
      </trkpt>
      <trkpt lat="42.6027" lon="-0.12682">
        <ele>1004</ele>
        <time>2017-07-30T07:54:31Z</time>
      </trkpt>
      <trkpt lat="42.60267" lon="-0.12683">
        <ele>1004.4</ele>
        <time>2017-07-30T07:54:33Z</time>
      </trkpt>
      <trkpt lat="42.60264" lon="-0.12684">
        <ele>1004.9</ele>
        <time>2017-07-30T07:54:35Z</time>
      </trkpt>
      <trkpt lat="42.60261" lon="-0.12686">
        <ele>1005.4</ele>
        <time>2017-07-30T07:54:38Z</time>
      </trkpt>
      <trkpt lat="42.60258" lon="-0.12688">
        <ele>1005.9</ele>
        <time>2017-07-30T07:54:40Z</time>
      </trkpt>
      <trkpt lat="42.60256" lon="-0.1269">
        <ele>1006.3</ele>
        <time>2017-07-30T07:54:42Z</time>
      </trkpt>
      <trkpt lat="42.60253" lon="-0.12692">
        <ele>1007</ele>
        <time>2017-07-30T07:54:45Z</time>
      </trkpt>
      <trkpt lat="42.6025" lon="-0.12695">
        <ele>1007.5</ele>
        <time>2017-07-30T07:54:47Z</time>
      </trkpt>
      <trkpt lat="42.60247" lon="-0.12698">
        <ele>1008.2</ele>
        <time>2017-07-30T07:54:50Z</time>
      </trkpt>
      <trkpt lat="42.60245" lon="-0.12702">
        <ele>1008.9</ele>
        <time>2017-07-30T07:54:53Z</time>
      </trkpt>
      <trkpt lat="42.60243" lon="-0.12705">
        <ele>1009.5</ele>
        <time>2017-07-30T07:54:55Z</time>
      </trkpt>
      <trkpt lat="42.6024" lon="-0.12709">
        <ele>1010.3</ele>
        <time>2017-07-30T07:54:58Z</time>
      </trkpt>
      <trkpt lat="42.60237" lon="-0.12711">
        <ele>1010.9</ele>
        <time>2017-07-30T07:55:00Z</time>
      </trkpt>
      <trkpt lat="42.60235" lon="-0.12714">
        <ele>1011.4</ele>
        <time>2017-07-30T07:55:02Z</time>
      </trkpt>
      <trkpt lat="42.60233" lon="-0.12717">
        <ele>1011.9</ele>
        <time>2017-07-30T07:55:04Z</time>
      </trkpt>
      <trkpt lat="42.60232" lon="-0.1272">
        <ele>1012.3</ele>
        <time>2017-07-30T07:55:06Z</time>
      </trkpt>
      <trkpt lat="42.6023" lon="-0.12723">
        <ele>1012.7</ele>
        <time>2017-07-30T07:55:08Z</time>
      </trkpt>
      <trkpt lat="42.60229" lon="-0.12726">
        <ele>1013</ele>
        <time>2017-07-30T07:55:10Z</time>
      </trkpt>
      <trkpt lat="42.60227" lon="-0.12729">
        <ele>1013.3</ele>
        <time>2017-07-30T07:55:12Z</time>
      </trkpt>
      <trkpt lat="42.60225" lon="-0.12732">
        <ele>1013.7</ele>
        <time>2017-07-30T07:55:14Z</time>
      </trkpt>
      <trkpt lat="42.60222" lon="-0.12734">
        <ele>1014</ele>
        <time>2017-07-30T07:55:16Z</time>
      </trkpt>
      <trkpt lat="42.6022" lon="-0.12736">
        <ele>1014.2</ele>
        <time>2017-07-30T07:55:18Z</time>
      </trkpt>
      <trkpt lat="42.60217" lon="-0.12739">
        <ele>1014.5</ele>
        <time>2017-07-30T07:55:20Z</time>
      </trkpt>
      <trkpt lat="42.60215" lon="-0.12741">
        <ele>1014.8</ele>
        <time>2017-07-30T07:55:22Z</time>
      </trkpt>
      <trkpt lat="42.60212" lon="-0.12744">
        <ele>1015.2</ele>
        <time>2017-07-30T07:55:25Z</time>
      </trkpt>
      <trkpt lat="42.6021" lon="-0.12747">
        <ele>1015.4</ele>
        <time>2017-07-30T07:55:27Z</time>
      </trkpt>
      <trkpt lat="42.60208" lon="-0.12751">
        <ele>1015.6</ele>
        <time>2017-07-30T07:55:29Z</time>
      </trkpt>
      <trkpt lat="42.60207" lon="-0.12755">
        <ele>1015.8</ele>
        <time>2017-07-30T07:55:31Z</time>
      </trkpt>
      <trkpt lat="42.60206" lon="-0.1276">
        <ele>1016.2</ele>
        <time>2017-07-30T07:55:33Z</time>
      </trkpt>
      <trkpt lat="42.60204" lon="-0.12765">
        <ele>1016.7</ele>
        <time>2017-07-30T07:55:35Z</time>
      </trkpt>
      <trkpt lat="42.60202" lon="-0.12769">
        <ele>1017.2</ele>
        <time>2017-07-30T07:55:37Z</time>
      </trkpt>
      <trkpt lat="42.60199" lon="-0.12772">
        <ele>1017.7</ele>
        <time>2017-07-30T07:55:39Z</time>
      </trkpt>
      <trkpt lat="42.60197" lon="-0.12776">
        <ele>1018</ele>
        <time>2017-07-30T07:55:41Z</time>
      </trkpt>
      <trkpt lat="42.60194" lon="-0.12779">
        <ele>1018.4</ele>
        <time>2017-07-30T07:55:43Z</time>
      </trkpt>
      <trkpt lat="42.60192" lon="-0.12783">
        <ele>1018.9</ele>
        <time>2017-07-30T07:55:45Z</time>
      </trkpt>
      <trkpt lat="42.6019" lon="-0.12788">
        <ele>1019.4</ele>
        <time>2017-07-30T07:55:47Z</time>
      </trkpt>
      <trkpt lat="42.6019" lon="-0.12794">
        <ele>1020</ele>
        <time>2017-07-30T07:55:49Z</time>
      </trkpt>
      <trkpt lat="42.6019" lon="-0.12799">
        <ele>1020.5</ele>
        <time>2017-07-30T07:55:51Z</time>
      </trkpt>
      <trkpt lat="42.60191" lon="-0.12803">
        <ele>1021</ele>
        <time>2017-07-30T07:55:53Z</time>
      </trkpt>
      <trkpt lat="42.60192" lon="-0.12807">
        <ele>1021.4</ele>
        <time>2017-07-30T07:55:55Z</time>
      </trkpt>
      <trkpt lat="42.60193" lon="-0.12811">
        <ele>1021.8</ele>
        <time>2017-07-30T07:55:57Z</time>
      </trkpt>
      <trkpt lat="42.60194" lon="-0.12815">
        <ele>1022.2</ele>
        <time>2017-07-30T07:55:59Z</time>
      </trkpt>
      <trkpt lat="42.60196" lon="-0.12819">
        <ele>1022.6</ele>
        <time>2017-07-30T07:56:01Z</time>
      </trkpt>
      <trkpt lat="42.60197" lon="-0.12822">
        <ele>1022.9</ele>
        <time>2017-07-30T07:56:03Z</time>
      </trkpt>
      <trkpt lat="42.60198" lon="-0.12826">
        <ele>1023.3</ele>
        <time>2017-07-30T07:56:05Z</time>
      </trkpt>
      <trkpt lat="42.60199" lon="-0.12829">
        <ele>1023.6</ele>
        <time>2017-07-30T07:56:07Z</time>
      </trkpt>
      <trkpt lat="42.602" lon="-0.12833">
        <ele>1023.9</ele>
        <time>2017-07-30T07:56:09Z</time>
      </trkpt>
      <trkpt lat="42.60201" lon="-0.12837">
        <ele>1024.3</ele>
        <time>2017-07-30T07:56:11Z</time>
      </trkpt>
      <trkpt lat="42.60202" lon="-0.12841">
        <ele>1024.5</ele>
        <time>2017-07-30T07:56:13Z</time>
      </trkpt>
      <trkpt lat="42.60202" lon="-0.12845">
        <ele>1024.8</ele>
        <time>2017-07-30T07:56:15Z</time>
      </trkpt>
      <trkpt lat="42.60203" lon="-0.12848">
        <ele>1025.1</ele>
        <time>2017-07-30T07:56:17Z</time>
      </trkpt>
      <trkpt lat="42.60203" lon="-0.12853">
        <ele>1025.4</ele>
        <time>2017-07-30T07:56:19Z</time>
      </trkpt>
      <trkpt lat="42.60204" lon="-0.12857">
        <ele>1025.7</ele>
        <time>2017-07-30T07:56:21Z</time>
      </trkpt>
      <trkpt lat="42.60204" lon="-0.12861">
        <ele>1025.9</ele>
        <time>2017-07-30T07:56:23Z</time>
      </trkpt>
      <trkpt lat="42.60204" lon="-0.12865">
        <ele>1026</ele>
        <time>2017-07-30T07:56:25Z</time>
      </trkpt>
      <trkpt lat="42.60203" lon="-0.12869">
        <ele>1026.2</ele>
        <time>2017-07-30T07:56:27Z</time>
      </trkpt>
      <trkpt lat="42.60201" lon="-0.12872">
        <ele>1026.4</ele>
        <time>2017-07-30T07:56:29Z</time>
      </trkpt>
      <trkpt lat="42.60199" lon="-0.12875">
        <ele>1026.7</ele>
        <time>2017-07-30T07:56:31Z</time>
      </trkpt>
      <trkpt lat="42.60195" lon="-0.12876">
        <ele>1027</ele>
        <time>2017-07-30T07:56:33Z</time>
      </trkpt>
      <trkpt lat="42.60192" lon="-0.12876">
        <ele>1027.4</ele>
        <time>2017-07-30T07:56:35Z</time>
      </trkpt>
      <trkpt lat="42.60189" lon="-0.12876">
        <ele>1027.7</ele>
        <time>2017-07-30T07:56:37Z</time>
      </trkpt>
      <trkpt lat="42.60186" lon="-0.12876">
        <ele>1028.2</ele>
        <time>2017-07-30T07:56:39Z</time>
      </trkpt>
      <trkpt lat="42.60183" lon="-0.12877">
        <ele>1028.7</ele>
        <time>2017-07-30T07:56:41Z</time>
      </trkpt>
      <trkpt lat="42.6018" lon="-0.12879">
        <ele>1029.1</ele>
        <time>2017-07-30T07:56:43Z</time>
      </trkpt>
      <trkpt lat="42.60179" lon="-0.12884">
        <ele>1029.7</ele>
        <time>2017-07-30T07:56:46Z</time>
      </trkpt>
      <trkpt lat="42.6018" lon="-0.12889">
        <ele>1030</ele>
        <time>2017-07-30T07:56:48Z</time>
      </trkpt>
      <trkpt lat="42.60181" lon="-0.12893">
        <ele>1030.1</ele>
        <time>2017-07-30T07:56:50Z</time>
      </trkpt>
      <trkpt lat="42.60183" lon="-0.12896">
        <ele>1030.1</ele>
        <time>2017-07-30T07:56:52Z</time>
      </trkpt>
      <trkpt lat="42.60185" lon="-0.12899">
        <ele>1030.1</ele>
        <time>2017-07-30T07:56:54Z</time>
      </trkpt>
      <trkpt lat="42.60188" lon="-0.12901">
        <ele>1030.2</ele>
        <time>2017-07-30T07:56:56Z</time>
      </trkpt>
      <trkpt lat="42.6019" lon="-0.12903">
        <ele>1030.2</ele>
        <time>2017-07-30T07:56:58Z</time>
      </trkpt>
      <trkpt lat="42.60193" lon="-0.12906">
        <ele>1030.2</ele>
        <time>2017-07-30T07:57:01Z</time>
      </trkpt>
      <trkpt lat="42.60195" lon="-0.12909">
        <ele>1030.3</ele>
        <time>2017-07-30T07:57:03Z</time>
      </trkpt>
      <trkpt lat="42.60198" lon="-0.12911">
        <ele>1030.3</ele>
        <time>2017-07-30T07:57:05Z</time>
      </trkpt>
      <trkpt lat="42.60201" lon="-0.12914">
        <ele>1030.3</ele>
        <time>2017-07-30T07:57:07Z</time>
      </trkpt>
      <trkpt lat="42.60204" lon="-0.12916">
        <ele>1030.3</ele>
        <time>2017-07-30T07:57:09Z</time>
      </trkpt>
      <trkpt lat="42.60206" lon="-0.12919">
        <ele>1030.3</ele>
        <time>2017-07-30T07:57:11Z</time>
      </trkpt>
      <trkpt lat="42.60208" lon="-0.12922">
        <ele>1030.3</ele>
        <time>2017-07-30T07:57:13Z</time>
      </trkpt>
      <trkpt lat="42.6021" lon="-0.12924">
        <ele>1030.3</ele>
        <time>2017-07-30T07:57:15Z</time>
      </trkpt>
      <trkpt lat="42.60212" lon="-0.12926">
        <ele>1030.3</ele>
        <time>2017-07-30T07:57:17Z</time>
      </trkpt>
      <trkpt lat="42.60215" lon="-0.12927">
        <ele>1030.3</ele>
        <time>2017-07-30T07:57:19Z</time>
      </trkpt>
      <trkpt lat="42.60218" lon="-0.12929">
        <ele>1030.3</ele>
        <time>2017-07-30T07:57:21Z</time>
      </trkpt>
      <trkpt lat="42.60221" lon="-0.1293">
        <ele>1030.3</ele>
        <time>2017-07-30T07:57:23Z</time>
      </trkpt>
      <trkpt lat="42.60223" lon="-0.12931">
        <ele>1030.3</ele>
        <time>2017-07-30T07:57:25Z</time>
      </trkpt>
      <trkpt lat="42.60226" lon="-0.12932">
        <ele>1030.2</ele>
        <time>2017-07-30T07:57:27Z</time>
      </trkpt>
      <trkpt lat="42.6023" lon="-0.12935">
        <ele>1030.2</ele>
        <time>2017-07-30T07:57:30Z</time>
      </trkpt>
      <trkpt lat="42.60232" lon="-0.12935">
        <ele>1030.2</ele>
        <time>2017-07-30T07:57:32Z</time>
      </trkpt>
      <trkpt lat="42.60236" lon="-0.12934">
        <ele>1030.1</ele>
        <time>2017-07-30T07:57:35Z</time>
      </trkpt>
      <trkpt lat="42.6024" lon="-0.12931">
        <ele>1030.1</ele>
        <time>2017-07-30T07:57:38Z</time>
      </trkpt>
      <trkpt lat="42.60242" lon="-0.12928">
        <ele>1030</ele>
        <time>2017-07-30T07:57:40Z</time>
      </trkpt>
      <trkpt lat="42.60243" lon="-0.12925">
        <ele>1030</ele>
        <time>2017-07-30T07:57:42Z</time>
      </trkpt>
      <trkpt lat="42.60246" lon="-0.12921">
        <ele>1030</ele>
        <time>2017-07-30T07:57:45Z</time>
      </trkpt>
      <trkpt lat="42.60247" lon="-0.12917">
        <ele>1030</ele>
        <time>2017-07-30T07:57:48Z</time>
      </trkpt>
      <trkpt lat="42.60249" lon="-0.12912">
        <ele>1030.5</ele>
        <time>2017-07-30T07:57:51Z</time>
      </trkpt>
      <trkpt lat="42.60251" lon="-0.12908">
        <ele>1030.9</ele>
        <time>2017-07-30T07:57:53Z</time>
      </trkpt>
      <trkpt lat="42.60252" lon="-0.12905">
        <ele>1031.3</ele>
        <time>2017-07-30T07:57:55Z</time>
      </trkpt>
      <trkpt lat="42.60254" lon="-0.12901">
        <ele>1031.7</ele>
        <time>2017-07-30T07:57:57Z</time>
      </trkpt>
      <trkpt lat="42.60255" lon="-0.12898">
        <ele>1032.1</ele>
        <time>2017-07-30T07:57:59Z</time>
      </trkpt>
      <trkpt lat="42.60256" lon="-0.12895">
        <ele>1032.4</ele>
        <time>2017-07-30T07:58:01Z</time>
      </trkpt>
      <trkpt lat="42.60258" lon="-0.12891">
        <ele>1032.8</ele>
        <time>2017-07-30T07:58:03Z</time>
      </trkpt>
      <trkpt lat="42.60259" lon="-0.12887">
        <ele>1033.2</ele>
        <time>2017-07-30T07:58:05Z</time>
      </trkpt>
      <trkpt lat="42.60261" lon="-0.12884">
        <ele>1033.7</ele>
        <time>2017-07-30T07:58:07Z</time>
      </trkpt>
      <trkpt lat="42.60262" lon="-0.1288">
        <ele>1034.1</ele>
        <time>2017-07-30T07:58:09Z</time>
      </trkpt>
      <trkpt lat="42.60264" lon="-0.12877">
        <ele>1034.5</ele>
        <time>2017-07-30T07:58:11Z</time>
      </trkpt>
      <trkpt lat="42.60267" lon="-0.12872">
        <ele>1035</ele>
        <time>2017-07-30T07:58:14Z</time>
      </trkpt>
      <trkpt lat="42.60269" lon="-0.1287">
        <ele>1035.4</ele>
        <time>2017-07-30T07:58:16Z</time>
      </trkpt>
      <trkpt lat="42.6027" lon="-0.12866">
        <ele>1035.8</ele>
        <time>2017-07-30T07:58:18Z</time>
      </trkpt>
      <trkpt lat="42.60271" lon="-0.12862">
        <ele>1036.2</ele>
        <time>2017-07-30T07:58:20Z</time>
      </trkpt>
      <trkpt lat="42.60272" lon="-0.12858">
        <ele>1036.6</ele>
        <time>2017-07-30T07:58:22Z</time>
      </trkpt>
      <trkpt lat="42.60273" lon="-0.12855">
        <ele>1037</ele>
        <time>2017-07-30T07:58:24Z</time>
      </trkpt>
      <trkpt lat="42.60274" lon="-0.1285">
        <ele>1037.6</ele>
        <time>2017-07-30T07:58:27Z</time>
      </trkpt>
      <trkpt lat="42.60275" lon="-0.12846">
        <ele>1038</ele>
        <time>2017-07-30T07:58:29Z</time>
      </trkpt>
      <trkpt lat="42.60277" lon="-0.12843">
        <ele>1038.4</ele>
        <time>2017-07-30T07:58:31Z</time>
      </trkpt>
      <trkpt lat="42.60278" lon="-0.12839">
        <ele>1038.9</ele>
        <time>2017-07-30T07:58:33Z</time>
      </trkpt>
      <trkpt lat="42.60279" lon="-0.12835">
        <ele>1039.4</ele>
        <time>2017-07-30T07:58:35Z</time>
      </trkpt>
      <trkpt lat="42.6028" lon="-0.12831">
        <ele>1040</ele>
        <time>2017-07-30T07:58:37Z</time>
      </trkpt>
      <trkpt lat="42.60281" lon="-0.12827">
        <ele>1040.7</ele>
        <time>2017-07-30T07:58:39Z</time>
      </trkpt>
      <trkpt lat="42.60281" lon="-0.12823">
        <ele>1041.4</ele>
        <time>2017-07-30T07:58:41Z</time>
      </trkpt>
      <trkpt lat="42.60281" lon="-0.1282">
        <ele>1042.2</ele>
        <time>2017-07-30T07:58:43Z</time>
      </trkpt>
      <trkpt lat="42.60282" lon="-0.12816">
        <ele>1043.1</ele>
        <time>2017-07-30T07:58:45Z</time>
      </trkpt>
      <trkpt lat="42.60282" lon="-0.12812">
        <ele>1044.1</ele>
        <time>2017-07-30T07:58:47Z</time>
      </trkpt>
      <trkpt lat="42.60284" lon="-0.12808">
        <ele>1045</ele>
        <time>2017-07-30T07:58:49Z</time>
      </trkpt>
      <trkpt lat="42.60286" lon="-0.12806">
        <ele>1045.9</ele>
        <time>2017-07-30T07:58:51Z</time>
      </trkpt>
      <trkpt lat="42.60289" lon="-0.12805">
        <ele>1047.2</ele>
        <time>2017-07-30T07:58:53Z</time>
      </trkpt>
      <trkpt lat="42.60293" lon="-0.12807">
        <ele>1048.5</ele>
        <time>2017-07-30T07:58:55Z</time>
      </trkpt>
      <trkpt lat="42.60296" lon="-0.1281">
        <ele>1049.6</ele>
        <time>2017-07-30T07:58:57Z</time>
      </trkpt>
      <trkpt lat="42.60298" lon="-0.12814">
        <ele>1050.6</ele>
        <time>2017-07-30T07:58:59Z</time>
      </trkpt>
      <trkpt lat="42.603" lon="-0.12818">
        <ele>1051.4</ele>
        <time>2017-07-30T07:59:01Z</time>
      </trkpt>
      <trkpt lat="42.60301" lon="-0.12822">
        <ele>1052.3</ele>
        <time>2017-07-30T07:59:03Z</time>
      </trkpt>
      <trkpt lat="42.60303" lon="-0.12826">
        <ele>1052.9</ele>
        <time>2017-07-30T07:59:05Z</time>
      </trkpt>
      <trkpt lat="42.60304" lon="-0.12829">
        <ele>1053.5</ele>
        <time>2017-07-30T07:59:07Z</time>
      </trkpt>
      <trkpt lat="42.60305" lon="-0.12833">
        <ele>1054</ele>
        <time>2017-07-30T07:59:09Z</time>
      </trkpt>
      <trkpt lat="42.60307" lon="-0.12837">
        <ele>1054.7</ele>
        <time>2017-07-30T07:59:12Z</time>
      </trkpt>
      <trkpt lat="42.60308" lon="-0.1284">
        <ele>1055.2</ele>
        <time>2017-07-30T07:59:14Z</time>
      </trkpt>
      <trkpt lat="42.6031" lon="-0.12843">
        <ele>1055.7</ele>
        <time>2017-07-30T07:59:16Z</time>
      </trkpt>
      <trkpt lat="42.60313" lon="-0.12846">
        <ele>1056.2</ele>
        <time>2017-07-30T07:59:18Z</time>
      </trkpt>
      <trkpt lat="42.60316" lon="-0.12849">
        <ele>1056.8</ele>
        <time>2017-07-30T07:59:20Z</time>
      </trkpt>
      <trkpt lat="42.60317" lon="-0.12852">
        <ele>1057.2</ele>
        <time>2017-07-30T07:59:22Z</time>
      </trkpt>
      <trkpt lat="42.60319" lon="-0.12856">
        <ele>1057.7</ele>
        <time>2017-07-30T07:59:24Z</time>
      </trkpt>
      <trkpt lat="42.6032" lon="-0.12861">
        <ele>1058.1</ele>
        <time>2017-07-30T07:59:26Z</time>
      </trkpt>
      <trkpt lat="42.60321" lon="-0.12865">
        <ele>1058.5</ele>
        <time>2017-07-30T07:59:28Z</time>
      </trkpt>
      <trkpt lat="42.60323" lon="-0.12869">
        <ele>1058.8</ele>
        <time>2017-07-30T07:59:30Z</time>
      </trkpt>
      <trkpt lat="42.60324" lon="-0.12872">
        <ele>1059.2</ele>
        <time>2017-07-30T07:59:32Z</time>
      </trkpt>
      <trkpt lat="42.60325" lon="-0.12877">
        <ele>1059.6</ele>
        <time>2017-07-30T07:59:34Z</time>
      </trkpt>
      <trkpt lat="42.60326" lon="-0.1288">
        <ele>1059.9</ele>
        <time>2017-07-30T07:59:36Z</time>
      </trkpt>
      <trkpt lat="42.60326" lon="-0.12884">
        <ele>1060.2</ele>
        <time>2017-07-30T07:59:39Z</time>
      </trkpt>
      <trkpt lat="42.60326" lon="-0.1289">
        <ele>1060.6</ele>
        <time>2017-07-30T07:59:42Z</time>
      </trkpt>
      <trkpt lat="42.60326" lon="-0.12895">
        <ele>1061</ele>
        <time>2017-07-30T07:59:45Z</time>
      </trkpt>
      <trkpt lat="42.60329" lon="-0.129">
        <ele>1061.5</ele>
        <time>2017-07-30T07:59:48Z</time>
      </trkpt>
      <trkpt lat="42.60331" lon="-0.12906">
        <ele>1061.9</ele>
        <time>2017-07-30T07:59:50Z</time>
      </trkpt>
      <trkpt lat="42.60333" lon="-0.12911">
        <ele>1062.4</ele>
        <time>2017-07-30T07:59:52Z</time>
      </trkpt>
      <trkpt lat="42.60335" lon="-0.12916">
        <ele>1062.8</ele>
        <time>2017-07-30T07:59:54Z</time>
      </trkpt>
      <trkpt lat="42.60336" lon="-0.1292">
        <ele>1063.1</ele>
        <time>2017-07-30T07:59:56Z</time>
      </trkpt>
      <trkpt lat="42.60337" lon="-0.12924">
        <ele>1063.4</ele>
        <time>2017-07-30T07:59:58Z</time>
      </trkpt>
      <trkpt lat="42.60339" lon="-0.12928">
        <ele>1063.7</ele>
        <time>2017-07-30T08:00:00Z</time>
      </trkpt>
      <trkpt lat="42.60341" lon="-0.12932">
        <ele>1064.1</ele>
        <time>2017-07-30T08:00:02Z</time>
      </trkpt>
      <trkpt lat="42.60343" lon="-0.12936">
        <ele>1064.4</ele>
        <time>2017-07-30T08:00:04Z</time>
      </trkpt>
      <trkpt lat="42.60345" lon="-0.12941">
        <ele>1064.8</ele>
        <time>2017-07-30T08:00:06Z</time>
      </trkpt>
      <trkpt lat="42.60346" lon="-0.12945">
        <ele>1065.1</ele>
        <time>2017-07-30T08:00:08Z</time>
      </trkpt>
      <trkpt lat="42.60348" lon="-0.12948">
        <ele>1065.4</ele>
        <time>2017-07-30T08:00:10Z</time>
      </trkpt>
      <trkpt lat="42.60349" lon="-0.12953">
        <ele>1065.7</ele>
        <time>2017-07-30T08:00:12Z</time>
      </trkpt>
      <trkpt lat="42.60351" lon="-0.12958">
        <ele>1066.1</ele>
        <time>2017-07-30T08:00:14Z</time>
      </trkpt>
      <trkpt lat="42.60353" lon="-0.12963">
        <ele>1066.5</ele>
        <time>2017-07-30T08:00:16Z</time>
      </trkpt>
      <trkpt lat="42.60354" lon="-0.12968">
        <ele>1066.9</ele>
        <time>2017-07-30T08:00:18Z</time>
      </trkpt>
      <trkpt lat="42.60354" lon="-0.12972">
        <ele>1067.1</ele>
        <time>2017-07-30T08:00:20Z</time>
      </trkpt>
      <trkpt lat="42.60355" lon="-0.12976">
        <ele>1067.4</ele>
        <time>2017-07-30T08:00:22Z</time>
      </trkpt>
      <trkpt lat="42.60356" lon="-0.12981">
        <ele>1067.8</ele>
        <time>2017-07-30T08:00:25Z</time>
      </trkpt>
      <trkpt lat="42.60357" lon="-0.12987">
        <ele>1068.2</ele>
        <time>2017-07-30T08:00:28Z</time>
      </trkpt>
      <trkpt lat="42.60358" lon="-0.12992">
        <ele>1068.6</ele>
        <time>2017-07-30T08:00:30Z</time>
      </trkpt>
      <trkpt lat="42.6036" lon="-0.12997">
        <ele>1069.1</ele>
        <time>2017-07-30T08:00:32Z</time>
      </trkpt>
      <trkpt lat="42.60362" lon="-0.13003">
        <ele>1069.6</ele>
        <time>2017-07-30T08:00:34Z</time>
      </trkpt>
      <trkpt lat="42.60364" lon="-0.13008">
        <ele>1070.1</ele>
        <time>2017-07-30T08:00:36Z</time>
      </trkpt>
      <trkpt lat="42.60365" lon="-0.13013">
        <ele>1070.5</ele>
        <time>2017-07-30T08:00:38Z</time>
      </trkpt>
      <trkpt lat="42.60367" lon="-0.13018">
        <ele>1070.9</ele>
        <time>2017-07-30T08:00:40Z</time>
      </trkpt>
      <trkpt lat="42.60368" lon="-0.13023">
        <ele>1071.4</ele>
        <time>2017-07-30T08:00:42Z</time>
      </trkpt>
      <trkpt lat="42.60369" lon="-0.13027">
        <ele>1071.8</ele>
        <time>2017-07-30T08:00:44Z</time>
      </trkpt>
      <trkpt lat="42.60369" lon="-0.13031">
        <ele>1072.2</ele>
        <time>2017-07-30T08:00:46Z</time>
      </trkpt>
      <trkpt lat="42.6037" lon="-0.13036">
        <ele>1072.7</ele>
        <time>2017-07-30T08:00:48Z</time>
      </trkpt>
      <trkpt lat="42.6037" lon="-0.13041">
        <ele>1073.2</ele>
        <time>2017-07-30T08:00:50Z</time>
      </trkpt>
      <trkpt lat="42.6037" lon="-0.13046">
        <ele>1073.7</ele>
        <time>2017-07-30T08:00:52Z</time>
      </trkpt>
      <trkpt lat="42.6037" lon="-0.13051">
        <ele>1074.2</ele>
        <time>2017-07-30T08:00:54Z</time>
      </trkpt>
      <trkpt lat="42.6037" lon="-0.13056">
        <ele>1074.7</ele>
        <time>2017-07-30T08:00:56Z</time>
      </trkpt>
      <trkpt lat="42.6037" lon="-0.13062">
        <ele>1075.3</ele>
        <time>2017-07-30T08:00:58Z</time>
      </trkpt>
      <trkpt lat="42.60371" lon="-0.13069">
        <ele>1076.2</ele>
        <time>2017-07-30T08:01:00Z</time>
      </trkpt>
      <trkpt lat="42.60372" lon="-0.13073">
        <ele>1076.4</ele>
        <time>2017-07-30T08:01:01Z</time>
      </trkpt>
      <trkpt lat="42.60373" lon="-0.13077">
        <ele>1076.6</ele>
        <time>2017-07-30T08:01:02Z</time>
      </trkpt>
      <trkpt lat="42.60373" lon="-0.13082">
        <ele>1076.8</ele>
        <time>2017-07-30T08:01:03Z</time>
      </trkpt>
      <trkpt lat="42.60374" lon="-0.13086">
        <ele>1077</ele>
        <time>2017-07-30T08:01:04Z</time>
      </trkpt>
      <trkpt lat="42.60375" lon="-0.1309">
        <ele>1077.2</ele>
        <time>2017-07-30T08:01:05Z</time>
      </trkpt>
      <trkpt lat="42.60376" lon="-0.13094">
        <ele>1077.4</ele>
        <time>2017-07-30T08:01:06Z</time>
      </trkpt>
      <trkpt lat="42.60377" lon="-0.13098">
        <ele>1077.6</ele>
        <time>2017-07-30T08:01:07Z</time>
      </trkpt>
      <trkpt lat="42.60377" lon="-0.13105">
        <ele>1077.9</ele>
        <time>2017-07-30T08:01:09Z</time>
      </trkpt>
      <trkpt lat="42.60378" lon="-0.1311">
        <ele>1078</ele>
        <time>2017-07-30T08:01:11Z</time>
      </trkpt>
      <trkpt lat="42.60377" lon="-0.13115">
        <ele>1078</ele>
        <time>2017-07-30T08:01:13Z</time>
      </trkpt>
      <trkpt lat="42.60377" lon="-0.1312">
        <ele>1078</ele>
        <time>2017-07-30T08:01:15Z</time>
      </trkpt>
      <trkpt lat="42.60376" lon="-0.13123">
        <ele>1078.2</ele>
        <time>2017-07-30T08:01:17Z</time>
      </trkpt>
      <trkpt lat="42.60376" lon="-0.13127">
        <ele>1078.3</ele>
        <time>2017-07-30T08:01:19Z</time>
      </trkpt>
      <trkpt lat="42.60375" lon="-0.13131">
        <ele>1078.2</ele>
        <time>2017-07-30T08:01:21Z</time>
      </trkpt>
      <trkpt lat="42.60375" lon="-0.13135">
        <ele>1078.1</ele>
        <time>2017-07-30T08:01:23Z</time>
      </trkpt>
      <trkpt lat="42.60375" lon="-0.13139">
        <ele>1078.5</ele>
        <time>2017-07-30T08:01:25Z</time>
      </trkpt>
      <trkpt lat="42.60376" lon="-0.13144">
        <ele>1079.1</ele>
        <time>2017-07-30T08:01:27Z</time>
      </trkpt>
      <trkpt lat="42.60377" lon="-0.13148">
        <ele>1079.7</ele>
        <time>2017-07-30T08:01:29Z</time>
      </trkpt>
      <trkpt lat="42.60378" lon="-0.13152">
        <ele>1080.3</ele>
        <time>2017-07-30T08:01:31Z</time>
      </trkpt>
      <trkpt lat="42.60378" lon="-0.13157">
        <ele>1080.9</ele>
        <time>2017-07-30T08:01:33Z</time>
      </trkpt>
      <trkpt lat="42.60378" lon="-0.13161">
        <ele>1081.5</ele>
        <time>2017-07-30T08:01:35Z</time>
      </trkpt>
      <trkpt lat="42.60378" lon="-0.13165">
        <ele>1082</ele>
        <time>2017-07-30T08:01:37Z</time>
      </trkpt>
      <trkpt lat="42.60378" lon="-0.13169">
        <ele>1082.5</ele>
        <time>2017-07-30T08:01:39Z</time>
      </trkpt>
      <trkpt lat="42.60378" lon="-0.13173">
        <ele>1083</ele>
        <time>2017-07-30T08:01:41Z</time>
      </trkpt>
      <trkpt lat="42.60378" lon="-0.13177">
        <ele>1083.6</ele>
        <time>2017-07-30T08:01:43Z</time>
      </trkpt>
      <trkpt lat="42.60379" lon="-0.13181">
        <ele>1084.8</ele>
        <time>2017-07-30T08:01:45Z</time>
      </trkpt>
      <trkpt lat="42.6038" lon="-0.13185">
        <ele>1086</ele>
        <time>2017-07-30T08:01:47Z</time>
      </trkpt>
      <trkpt lat="42.60381" lon="-0.13188">
        <ele>1086.9</ele>
        <time>2017-07-30T08:01:49Z</time>
      </trkpt>
      <trkpt lat="42.60382" lon="-0.13192">
        <ele>1087.6</ele>
        <time>2017-07-30T08:01:51Z</time>
      </trkpt>
      <trkpt lat="42.60383" lon="-0.13196">
        <ele>1088.3</ele>
        <time>2017-07-30T08:01:53Z</time>
      </trkpt>
      <trkpt lat="42.60384" lon="-0.13199">
        <ele>1089.5</ele>
        <time>2017-07-30T08:01:55Z</time>
      </trkpt>
      <trkpt lat="42.60386" lon="-0.13203">
        <ele>1090.7</ele>
        <time>2017-07-30T08:01:57Z</time>
      </trkpt>
      <trkpt lat="42.60387" lon="-0.13208">
        <ele>1092</ele>
        <time>2017-07-30T08:02:00Z</time>
      </trkpt>
      <trkpt lat="42.60388" lon="-0.13211">
        <ele>1092.9</ele>
        <time>2017-07-30T08:02:02Z</time>
      </trkpt>
      <trkpt lat="42.6039" lon="-0.13215">
        <ele>1093.8</ele>
        <time>2017-07-30T08:02:04Z</time>
      </trkpt>
      <trkpt lat="42.60391" lon="-0.13219">
        <ele>1094.5</ele>
        <time>2017-07-30T08:02:06Z</time>
      </trkpt>
      <trkpt lat="42.60392" lon="-0.13222">
        <ele>1095.3</ele>
        <time>2017-07-30T08:02:08Z</time>
      </trkpt>
      <trkpt lat="42.60393" lon="-0.13226">
        <ele>1096.3</ele>
        <time>2017-07-30T08:02:10Z</time>
      </trkpt>
      <trkpt lat="42.60395" lon="-0.13231">
        <ele>1097.4</ele>
        <time>2017-07-30T08:02:12Z</time>
      </trkpt>
      <trkpt lat="42.60397" lon="-0.13234">
        <ele>1098.4</ele>
        <time>2017-07-30T08:02:14Z</time>
      </trkpt>
      <trkpt lat="42.604" lon="-0.13238">
        <ele>1099.4</ele>
        <time>2017-07-30T08:02:16Z</time>
      </trkpt>
      <trkpt lat="42.60403" lon="-0.13243">
        <ele>1100.5</ele>
        <time>2017-07-30T08:02:18Z</time>
      </trkpt>
      <trkpt lat="42.60405" lon="-0.13247">
        <ele>1101.1</ele>
        <time>2017-07-30T08:02:20Z</time>
      </trkpt>
      <trkpt lat="42.60407" lon="-0.13252">
        <ele>1101.5</ele>
        <time>2017-07-30T08:02:22Z</time>
      </trkpt>
      <trkpt lat="42.60409" lon="-0.13256">
        <ele>1102.5</ele>
        <time>2017-07-30T08:02:24Z</time>
      </trkpt>
      <trkpt lat="42.60411" lon="-0.13259">
        <ele>1103.4</ele>
        <time>2017-07-30T08:02:26Z</time>
      </trkpt>
      <trkpt lat="42.60413" lon="-0.13262">
        <ele>1104.3</ele>
        <time>2017-07-30T08:02:28Z</time>
      </trkpt>
      <trkpt lat="42.60415" lon="-0.13264">
        <ele>1105.3</ele>
        <time>2017-07-30T08:02:30Z</time>
      </trkpt>
      <trkpt lat="42.60418" lon="-0.13267">
        <ele>1106.3</ele>
        <time>2017-07-30T08:02:32Z</time>
      </trkpt>
      <trkpt lat="42.6042" lon="-0.1327">
        <ele>1107.1</ele>
        <time>2017-07-30T08:02:34Z</time>
      </trkpt>
      <trkpt lat="42.60422" lon="-0.13272">
        <ele>1107.9</ele>
        <time>2017-07-30T08:02:36Z</time>
      </trkpt>
      <trkpt lat="42.60424" lon="-0.13275">
        <ele>1108.5</ele>
        <time>2017-07-30T08:02:38Z</time>
      </trkpt>
      <trkpt lat="42.60427" lon="-0.13277">
        <ele>1108.8</ele>
        <time>2017-07-30T08:02:40Z</time>
      </trkpt>
      <trkpt lat="42.60429" lon="-0.1328">
        <ele>1109.2</ele>
        <time>2017-07-30T08:02:42Z</time>
      </trkpt>
      <trkpt lat="42.60431" lon="-0.13282">
        <ele>1109.6</ele>
        <time>2017-07-30T08:02:44Z</time>
      </trkpt>
      <trkpt lat="42.60434" lon="-0.13285">
        <ele>1110.2</ele>
        <time>2017-07-30T08:02:46Z</time>
      </trkpt>
      <trkpt lat="42.60437" lon="-0.13287">
        <ele>1110.9</ele>
        <time>2017-07-30T08:02:48Z</time>
      </trkpt>
      <trkpt lat="42.6044" lon="-0.13289">
        <ele>1111.9</ele>
        <time>2017-07-30T08:02:50Z</time>
      </trkpt>
      <trkpt lat="42.60443" lon="-0.13292">
        <ele>1112.6</ele>
        <time>2017-07-30T08:02:52Z</time>
      </trkpt>
      <trkpt lat="42.60446" lon="-0.13295">
        <ele>1113.1</ele>
        <time>2017-07-30T08:02:54Z</time>
      </trkpt>
      <trkpt lat="42.60448" lon="-0.13299">
        <ele>1119</ele>
        <time>2017-07-30T08:02:56Z</time>
      </trkpt>
      <trkpt lat="42.60449" lon="-0.13304">
        <ele>1119</ele>
        <time>2017-07-30T08:02:58Z</time>
      </trkpt>
      <trkpt lat="42.6045" lon="-0.13308">
        <ele>1119.5</ele>
        <time>2017-07-30T08:03:00Z</time>
      </trkpt>
      <trkpt lat="42.60451" lon="-0.13313">
        <ele>1120</ele>
        <time>2017-07-30T08:03:02Z</time>
      </trkpt>
      <trkpt lat="42.60452" lon="-0.13317">
        <ele>1120.5</ele>
        <time>2017-07-30T08:03:04Z</time>
      </trkpt>
      <trkpt lat="42.60455" lon="-0.1332">
        <ele>1121.1</ele>
        <time>2017-07-30T08:03:06Z</time>
      </trkpt>
      <trkpt lat="42.60458" lon="-0.13323">
        <ele>1121.7</ele>
        <time>2017-07-30T08:03:08Z</time>
      </trkpt>
      <trkpt lat="42.60462" lon="-0.13326">
        <ele>1122.3</ele>
        <time>2017-07-30T08:03:10Z</time>
      </trkpt>
      <trkpt lat="42.60466" lon="-0.13328">
        <ele>1122.9</ele>
        <time>2017-07-30T08:03:12Z</time>
      </trkpt>
      <trkpt lat="42.6047" lon="-0.13331">
        <ele>1123.7</ele>
        <time>2017-07-30T08:03:14Z</time>
      </trkpt>
      <trkpt lat="42.60474" lon="-0.13334">
        <ele>1124.3</ele>
        <time>2017-07-30T08:03:16Z</time>
      </trkpt>
      <trkpt lat="42.60478" lon="-0.13337">
        <ele>1124.9</ele>
        <time>2017-07-30T08:03:18Z</time>
      </trkpt>
      <trkpt lat="42.60482" lon="-0.1334">
        <ele>1125.6</ele>
        <time>2017-07-30T08:03:20Z</time>
      </trkpt>
      <trkpt lat="42.60486" lon="-0.13343">
        <ele>1126.6</ele>
        <time>2017-07-30T08:03:22Z</time>
      </trkpt>
      <trkpt lat="42.6049" lon="-0.13346">
        <ele>1127.4</ele>
        <time>2017-07-30T08:03:24Z</time>
      </trkpt>
      <trkpt lat="42.60493" lon="-0.13348">
        <ele>1128.3</ele>
        <time>2017-07-30T08:03:26Z</time>
      </trkpt>
      <trkpt lat="42.60497" lon="-0.13351">
        <ele>1129.2</ele>
        <time>2017-07-30T08:03:28Z</time>
      </trkpt>
      <trkpt lat="42.605" lon="-0.13353">
        <ele>1130.2</ele>
        <time>2017-07-30T08:03:30Z</time>
      </trkpt>
      <trkpt lat="42.60503" lon="-0.13356">
        <ele>1131.4</ele>
        <time>2017-07-30T08:03:32Z</time>
      </trkpt>
      <trkpt lat="42.60505" lon="-0.13359">
        <ele>1132.6</ele>
        <time>2017-07-30T08:03:34Z</time>
      </trkpt>
      <trkpt lat="42.60508" lon="-0.13362">
        <ele>1134</ele>
        <time>2017-07-30T08:03:36Z</time>
      </trkpt>
      <trkpt lat="42.6051" lon="-0.13365">
        <ele>1135.8</ele>
        <time>2017-07-30T08:03:38Z</time>
      </trkpt>
      <trkpt lat="42.60512" lon="-0.13369">
        <ele>1137.9</ele>
        <time>2017-07-30T08:03:40Z</time>
      </trkpt>
      <trkpt lat="42.60514" lon="-0.13373">
        <ele>1139.6</ele>
        <time>2017-07-30T08:03:42Z</time>
      </trkpt>
      <trkpt lat="42.60515" lon="-0.13377">
        <ele>1140.1</ele>
        <time>2017-07-30T08:03:44Z</time>
      </trkpt>
      <trkpt lat="42.60515" lon="-0.13383">
        <ele>1140.8</ele>
        <time>2017-07-30T08:03:47Z</time>
      </trkpt>
      <trkpt lat="42.60516" lon="-0.13388">
        <ele>1141.4</ele>
        <time>2017-07-30T08:03:50Z</time>
      </trkpt>
      <trkpt lat="42.60516" lon="-0.13392">
        <ele>1141.9</ele>
        <time>2017-07-30T08:03:53Z</time>
      </trkpt>
      <trkpt lat="42.60518" lon="-0.13395">
        <ele>1142.4</ele>
        <time>2017-07-30T08:03:55Z</time>
      </trkpt>
      <trkpt lat="42.60521" lon="-0.13398">
        <ele>1143.1</ele>
        <time>2017-07-30T08:03:58Z</time>
      </trkpt>
      <trkpt lat="42.60523" lon="-0.134">
        <ele>1143.6</ele>
        <time>2017-07-30T08:04:00Z</time>
      </trkpt>
      <trkpt lat="42.60526" lon="-0.13403">
        <ele>1144.2</ele>
        <time>2017-07-30T08:04:03Z</time>
      </trkpt>
      <trkpt lat="42.60528" lon="-0.13407">
        <ele>1144.8</ele>
        <time>2017-07-30T08:04:06Z</time>
      </trkpt>
      <trkpt lat="42.6053" lon="-0.13411">
        <ele>1145.4</ele>
        <time>2017-07-30T08:04:09Z</time>
      </trkpt>
      <trkpt lat="42.60532" lon="-0.13415">
        <ele>1146</ele>
        <time>2017-07-30T08:04:12Z</time>
      </trkpt>
      <trkpt lat="42.60534" lon="-0.13419">
        <ele>1146.6</ele>
        <time>2017-07-30T08:04:15Z</time>
      </trkpt>
      <trkpt lat="42.60533" lon="-0.13424">
        <ele>1147.2</ele>
        <time>2017-07-30T08:04:18Z</time>
      </trkpt>
      <trkpt lat="42.60531" lon="-0.13426">
        <ele>1147.7</ele>
        <time>2017-07-30T08:04:20Z</time>
      </trkpt>
      <trkpt lat="42.60529" lon="-0.13428">
        <ele>1147.7</ele>
        <time>2017-07-30T08:04:22Z</time>
      </trkpt>
      <trkpt lat="42.60526" lon="-0.13429">
        <ele>1147.4</ele>
        <time>2017-07-30T08:04:24Z</time>
      </trkpt>
      <trkpt lat="42.60522" lon="-0.1343">
        <ele>1146.9</ele>
        <time>2017-07-30T08:04:27Z</time>
      </trkpt>
      <trkpt lat="42.60519" lon="-0.13429">
        <ele>1146.5</ele>
        <time>2017-07-30T08:04:29Z</time>
      </trkpt>
      <trkpt lat="42.60517" lon="-0.13427">
        <ele>1146.2</ele>
        <time>2017-07-30T08:04:31Z</time>
      </trkpt>
      <trkpt lat="42.60514" lon="-0.13424">
        <ele>1145.8</ele>
        <time>2017-07-30T08:04:34Z</time>
      </trkpt>
      <trkpt lat="42.60511" lon="-0.13422">
        <ele>1145.4</ele>
        <time>2017-07-30T08:04:36Z</time>
      </trkpt>
      <trkpt lat="42.60509" lon="-0.13421">
        <ele>1145</ele>
        <time>2017-07-30T08:04:38Z</time>
      </trkpt>
      <trkpt lat="42.60506" lon="-0.13419">
        <ele>1144.6</ele>
        <time>2017-07-30T08:04:40Z</time>
      </trkpt>
      <trkpt lat="42.60503" lon="-0.13417">
        <ele>1144.4</ele>
        <time>2017-07-30T08:04:42Z</time>
      </trkpt>
      <trkpt lat="42.60501" lon="-0.13416">
        <ele>1144.8</ele>
        <time>2017-07-30T08:04:44Z</time>
      </trkpt>
      <trkpt lat="42.60498" lon="-0.13415">
        <ele>1144.5</ele>
        <time>2017-07-30T08:04:46Z</time>
      </trkpt>
      <trkpt lat="42.60495" lon="-0.13414">
        <ele>1145</ele>
        <time>2017-07-30T08:04:48Z</time>
      </trkpt>
      <trkpt lat="42.60492" lon="-0.13413">
        <ele>1145.5</ele>
        <time>2017-07-30T08:04:50Z</time>
      </trkpt>
      <trkpt lat="42.60489" lon="-0.13413">
        <ele>1146.2</ele>
        <time>2017-07-30T08:04:52Z</time>
      </trkpt>
      <trkpt lat="42.60486" lon="-0.13412">
        <ele>1146.9</ele>
        <time>2017-07-30T08:04:54Z</time>
      </trkpt>
      <trkpt lat="42.60483" lon="-0.13412">
        <ele>1147.7</ele>
        <time>2017-07-30T08:04:56Z</time>
      </trkpt>
      <trkpt lat="42.6048" lon="-0.13412">
        <ele>1148.4</ele>
        <time>2017-07-30T08:04:58Z</time>
      </trkpt>
      <trkpt lat="42.60476" lon="-0.13412">
        <ele>1149.1</ele>
        <time>2017-07-30T08:05:00Z</time>
      </trkpt>
      <trkpt lat="42.60473" lon="-0.13412">
        <ele>1149.8</ele>
        <time>2017-07-30T08:05:02Z</time>
      </trkpt>
      <trkpt lat="42.6047" lon="-0.13412">
        <ele>1150.4</ele>
        <time>2017-07-30T08:05:04Z</time>
      </trkpt>
      <trkpt lat="42.60467" lon="-0.13412">
        <ele>1151</ele>
        <time>2017-07-30T08:05:06Z</time>
      </trkpt>
      <trkpt lat="42.60464" lon="-0.13412">
        <ele>1151.6</ele>
        <time>2017-07-30T08:05:08Z</time>
      </trkpt>
      <trkpt lat="42.60461" lon="-0.13413">
        <ele>1152.2</ele>
        <time>2017-07-30T08:05:10Z</time>
      </trkpt>
      <trkpt lat="42.60459" lon="-0.13413">
        <ele>1152.6</ele>
        <time>2017-07-30T08:05:12Z</time>
      </trkpt>
      <trkpt lat="42.60456" lon="-0.13413">
        <ele>1152.4</ele>
        <time>2017-07-30T08:05:14Z</time>
      </trkpt>
      <trkpt lat="42.60453" lon="-0.13413">
        <ele>1153.3</ele>
        <time>2017-07-30T08:05:16Z</time>
      </trkpt>
      <trkpt lat="42.60449" lon="-0.13414">
        <ele>1153.4</ele>
        <time>2017-07-30T08:05:18Z</time>
      </trkpt>
      <trkpt lat="42.60447" lon="-0.13415">
        <ele>1153.2</ele>
        <time>2017-07-30T08:05:20Z</time>
      </trkpt>
      <trkpt lat="42.60444" lon="-0.13416">
        <ele>1154.4</ele>
        <time>2017-07-30T08:05:22Z</time>
      </trkpt>
      <trkpt lat="42.60441" lon="-0.13416">
        <ele>1154.3</ele>
        <time>2017-07-30T08:05:24Z</time>
      </trkpt>
      <trkpt lat="42.60438" lon="-0.13417">
        <ele>1154.1</ele>
        <time>2017-07-30T08:05:26Z</time>
      </trkpt>
      <trkpt lat="42.60435" lon="-0.13417">
        <ele>1153.9</ele>
        <time>2017-07-30T08:05:28Z</time>
      </trkpt>
      <trkpt lat="42.60432" lon="-0.13418">
        <ele>1153.7</ele>
        <time>2017-07-30T08:05:30Z</time>
      </trkpt>
      <trkpt lat="42.6043" lon="-0.13419">
        <ele>1153.4</ele>
        <time>2017-07-30T08:05:32Z</time>
      </trkpt>
      <trkpt lat="42.60426" lon="-0.13419">
        <ele>1153.2</ele>
        <time>2017-07-30T08:05:34Z</time>
      </trkpt>
      <trkpt lat="42.60423" lon="-0.1342">
        <ele>1152.9</ele>
        <time>2017-07-30T08:05:36Z</time>
      </trkpt>
      <trkpt lat="42.60419" lon="-0.1342">
        <ele>1154.1</ele>
        <time>2017-07-30T08:05:38Z</time>
      </trkpt>
      <trkpt lat="42.60416" lon="-0.13421">
        <ele>1154</ele>
        <time>2017-07-30T08:05:40Z</time>
      </trkpt>
      <trkpt lat="42.60413" lon="-0.1342">
        <ele>1154</ele>
        <time>2017-07-30T08:05:42Z</time>
      </trkpt>
      <trkpt lat="42.6041" lon="-0.13421">
        <ele>1154.1</ele>
        <time>2017-07-30T08:05:44Z</time>
      </trkpt>
      <trkpt lat="42.60407" lon="-0.13421">
        <ele>1154.2</ele>
        <time>2017-07-30T08:05:46Z</time>
      </trkpt>
      <trkpt lat="42.60404" lon="-0.1342">
        <ele>1154.3</ele>
        <time>2017-07-30T08:05:48Z</time>
      </trkpt>
      <trkpt lat="42.60401" lon="-0.13419">
        <ele>1152.9</ele>
        <time>2017-07-30T08:05:50Z</time>
      </trkpt>
      <trkpt lat="42.60397" lon="-0.13419">
        <ele>1153</ele>
        <time>2017-07-30T08:05:52Z</time>
      </trkpt>
      <trkpt lat="42.60395" lon="-0.13418">
        <ele>1153</ele>
        <time>2017-07-30T08:05:54Z</time>
      </trkpt>
      <trkpt lat="42.60391" lon="-0.13417">
        <ele>1153</ele>
        <time>2017-07-30T08:05:56Z</time>
      </trkpt>
      <trkpt lat="42.60389" lon="-0.13416">
        <ele>1152.2</ele>
        <time>2017-07-30T08:05:58Z</time>
      </trkpt>
      <trkpt lat="42.60386" lon="-0.13414">
        <ele>1151.7</ele>
        <time>2017-07-30T08:06:00Z</time>
      </trkpt>
      <trkpt lat="42.60383" lon="-0.13413">
        <ele>1151.2</ele>
        <time>2017-07-30T08:06:02Z</time>
      </trkpt>
      <trkpt lat="42.60379" lon="-0.13413">
        <ele>1150.6</ele>
        <time>2017-07-30T08:06:05Z</time>
      </trkpt>
      <trkpt lat="42.60376" lon="-0.13413">
        <ele>1150.2</ele>
        <time>2017-07-30T08:06:07Z</time>
      </trkpt>
      <trkpt lat="42.60373" lon="-0.13413">
        <ele>1149.8</ele>
        <time>2017-07-30T08:06:09Z</time>
      </trkpt>
      <trkpt lat="42.60371" lon="-0.13416">
        <ele>1150</ele>
        <time>2017-07-30T08:06:11Z</time>
      </trkpt>
      <trkpt lat="42.60369" lon="-0.13419">
        <ele>1150.6</ele>
        <time>2017-07-30T08:06:13Z</time>
      </trkpt>
      <trkpt lat="42.60368" lon="-0.13423">
        <ele>1151.2</ele>
        <time>2017-07-30T08:06:15Z</time>
      </trkpt>
      <trkpt lat="42.60369" lon="-0.13427">
        <ele>1151.8</ele>
        <time>2017-07-30T08:06:17Z</time>
      </trkpt>
      <trkpt lat="42.60371" lon="-0.1343">
        <ele>1152.7</ele>
        <time>2017-07-30T08:06:19Z</time>
      </trkpt>
      <trkpt lat="42.60374" lon="-0.13432">
        <ele>1153.9</ele>
        <time>2017-07-30T08:06:21Z</time>
      </trkpt>
      <trkpt lat="42.60377" lon="-0.13435">
        <ele>1155.1</ele>
        <time>2017-07-30T08:06:23Z</time>
      </trkpt>
      <trkpt lat="42.6038" lon="-0.13436">
        <ele>1156.2</ele>
        <time>2017-07-30T08:06:25Z</time>
      </trkpt>
      <trkpt lat="42.60383" lon="-0.13437">
        <ele>1156.8</ele>
        <time>2017-07-30T08:06:27Z</time>
      </trkpt>
      <trkpt lat="42.60386" lon="-0.13438">
        <ele>1157.4</ele>
        <time>2017-07-30T08:06:29Z</time>
      </trkpt>
      <trkpt lat="42.6039" lon="-0.1344">
        <ele>1158.3</ele>
        <time>2017-07-30T08:06:32Z</time>
      </trkpt>
      <trkpt lat="42.60393" lon="-0.1344">
        <ele>1159</ele>
        <time>2017-07-30T08:06:34Z</time>
      </trkpt>
      <trkpt lat="42.60397" lon="-0.13442">
        <ele>1160</ele>
        <time>2017-07-30T08:06:37Z</time>
      </trkpt>
      <trkpt lat="42.604" lon="-0.13444">
        <ele>1160.7</ele>
        <time>2017-07-30T08:06:39Z</time>
      </trkpt>
      <trkpt lat="42.60403" lon="-0.13445">
        <ele>1160.6</ele>
        <time>2017-07-30T08:06:41Z</time>
      </trkpt>
      <trkpt lat="42.60406" lon="-0.13445">
        <ele>1160.4</ele>
        <time>2017-07-30T08:06:43Z</time>
      </trkpt>
      <trkpt lat="42.6041" lon="-0.13446">
        <ele>1161.4</ele>
        <time>2017-07-30T08:06:45Z</time>
      </trkpt>
      <trkpt lat="42.60413" lon="-0.13446">
        <ele>1161.1</ele>
        <time>2017-07-30T08:06:47Z</time>
      </trkpt>
      <trkpt lat="42.60417" lon="-0.13447">
        <ele>1160.9</ele>
        <time>2017-07-30T08:06:49Z</time>
      </trkpt>
      <trkpt lat="42.6042" lon="-0.13448">
        <ele>1160.6</ele>
        <time>2017-07-30T08:06:51Z</time>
      </trkpt>
      <trkpt lat="42.60423" lon="-0.13449">
        <ele>1160.4</ele>
        <time>2017-07-30T08:06:53Z</time>
      </trkpt>
      <trkpt lat="42.60426" lon="-0.1345">
        <ele>1161.4</ele>
        <time>2017-07-30T08:06:55Z</time>
      </trkpt>
      <trkpt lat="42.60429" lon="-0.13451">
        <ele>1161.1</ele>
        <time>2017-07-30T08:06:57Z</time>
      </trkpt>
      <trkpt lat="42.60432" lon="-0.13453">
        <ele>1160.8</ele>
        <time>2017-07-30T08:06:59Z</time>
      </trkpt>
      <trkpt lat="42.60435" lon="-0.13455">
        <ele>1161.7</ele>
        <time>2017-07-30T08:07:01Z</time>
      </trkpt>
      <trkpt lat="42.60438" lon="-0.13456">
        <ele>1161.4</ele>
        <time>2017-07-30T08:07:03Z</time>
      </trkpt>
      <trkpt lat="42.60441" lon="-0.13456">
        <ele>1161.1</ele>
        <time>2017-07-30T08:07:05Z</time>
      </trkpt>
      <trkpt lat="42.60444" lon="-0.13456">
        <ele>1160.8</ele>
        <time>2017-07-30T08:07:07Z</time>
      </trkpt>
      <trkpt lat="42.60447" lon="-0.13457">
        <ele>1160.6</ele>
        <time>2017-07-30T08:07:09Z</time>
      </trkpt>
      <trkpt lat="42.60451" lon="-0.13458">
        <ele>1160.4</ele>
        <time>2017-07-30T08:07:11Z</time>
      </trkpt>
      <trkpt lat="42.60454" lon="-0.13459">
        <ele>1161.3</ele>
        <time>2017-07-30T08:07:13Z</time>
      </trkpt>
      <trkpt lat="42.60457" lon="-0.13462">
        <ele>1161</ele>
        <time>2017-07-30T08:07:15Z</time>
      </trkpt>
      <trkpt lat="42.60459" lon="-0.13465">
        <ele>1161.8</ele>
        <time>2017-07-30T08:07:17Z</time>
      </trkpt>
      <trkpt lat="42.60462" lon="-0.13468">
        <ele>1162.9</ele>
        <time>2017-07-30T08:07:19Z</time>
      </trkpt>
      <trkpt lat="42.60465" lon="-0.1347">
        <ele>1162.5</ele>
        <time>2017-07-30T08:07:21Z</time>
      </trkpt>
      <trkpt lat="42.60468" lon="-0.13472">
        <ele>1163.1</ele>
        <time>2017-07-30T08:07:23Z</time>
      </trkpt>
      <trkpt lat="42.6047" lon="-0.13475">
        <ele>1162.5</ele>
        <time>2017-07-30T08:07:25Z</time>
      </trkpt>
      <trkpt lat="42.60473" lon="-0.13478">
        <ele>1163.2</ele>
        <time>2017-07-30T08:07:27Z</time>
      </trkpt>
      <trkpt lat="42.60476" lon="-0.1348">
        <ele>1164.2</ele>
        <time>2017-07-30T08:07:29Z</time>
      </trkpt>
      <trkpt lat="42.60478" lon="-0.13482">
        <ele>1163.7</ele>
        <time>2017-07-30T08:07:31Z</time>
      </trkpt>
      <trkpt lat="42.60481" lon="-0.13485">
        <ele>1165.3</ele>
        <time>2017-07-30T08:07:33Z</time>
      </trkpt>
      <trkpt lat="42.60484" lon="-0.13487">
        <ele>1165.3</ele>
        <time>2017-07-30T08:07:35Z</time>
      </trkpt>
      <trkpt lat="42.60487" lon="-0.1349">
        <ele>1167.4</ele>
        <time>2017-07-30T08:07:37Z</time>
      </trkpt>
      <trkpt lat="42.60489" lon="-0.13493">
        <ele>1169.8</ele>
        <time>2017-07-30T08:07:39Z</time>
      </trkpt>
      <trkpt lat="42.60492" lon="-0.13495">
        <ele>1169.6</ele>
        <time>2017-07-30T08:07:41Z</time>
      </trkpt>
      <trkpt lat="42.60494" lon="-0.13497">
        <ele>1172.1</ele>
        <time>2017-07-30T08:07:43Z</time>
      </trkpt>
      <trkpt lat="42.60497" lon="-0.13499">
        <ele>1171.9</ele>
        <time>2017-07-30T08:07:45Z</time>
      </trkpt>
      <trkpt lat="42.605" lon="-0.13502">
        <ele>1174.5</ele>
        <time>2017-07-30T08:07:47Z</time>
      </trkpt>
      <trkpt lat="42.60501" lon="-0.13505">
        <ele>1174.2</ele>
        <time>2017-07-30T08:07:49Z</time>
      </trkpt>
      <trkpt lat="42.60501" lon="-0.13509">
        <ele>1176.7</ele>
        <time>2017-07-30T08:07:51Z</time>
      </trkpt>
      <trkpt lat="42.605" lon="-0.13513">
        <ele>1179.7</ele>
        <time>2017-07-30T08:07:53Z</time>
      </trkpt>
      <trkpt lat="42.60497" lon="-0.13514">
        <ele>1180.2</ele>
        <time>2017-07-30T08:07:55Z</time>
      </trkpt>
      <trkpt lat="42.60493" lon="-0.13511">
        <ele>1180.6</ele>
        <time>2017-07-30T08:07:57Z</time>
      </trkpt>
      <trkpt lat="42.6049" lon="-0.13509">
        <ele>1178.2</ele>
        <time>2017-07-30T08:07:59Z</time>
      </trkpt>
      <trkpt lat="42.60487" lon="-0.13506">
        <ele>1178.4</ele>
        <time>2017-07-30T08:08:01Z</time>
      </trkpt>
      <trkpt lat="42.60484" lon="-0.13504">
        <ele>1175.7</ele>
        <time>2017-07-30T08:08:03Z</time>
      </trkpt>
      <trkpt lat="42.60481" lon="-0.13501">
        <ele>1175.9</ele>
        <time>2017-07-30T08:08:05Z</time>
      </trkpt>
      <trkpt lat="42.60478" lon="-0.13499">
        <ele>1173.9</ele>
        <time>2017-07-30T08:08:07Z</time>
      </trkpt>
      <trkpt lat="42.60475" lon="-0.13498">
        <ele>1174.3</ele>
        <time>2017-07-30T08:08:09Z</time>
      </trkpt>
      <trkpt lat="42.60472" lon="-0.13496">
        <ele>1172</ele>
        <time>2017-07-30T08:08:11Z</time>
      </trkpt>
      <trkpt lat="42.60469" lon="-0.13496">
        <ele>1172.5</ele>
        <time>2017-07-30T08:08:13Z</time>
      </trkpt>
      <trkpt lat="42.60465" lon="-0.13496">
        <ele>1173.1</ele>
        <time>2017-07-30T08:08:15Z</time>
      </trkpt>
      <trkpt lat="42.60462" lon="-0.13495">
        <ele>1174.5</ele>
        <time>2017-07-30T08:08:17Z</time>
      </trkpt>
      <trkpt lat="42.60459" lon="-0.13494">
        <ele>1175.2</ele>
        <time>2017-07-30T08:08:19Z</time>
      </trkpt>
      <trkpt lat="42.60456" lon="-0.13493">
        <ele>1176</ele>
        <time>2017-07-30T08:08:21Z</time>
      </trkpt>
      <trkpt lat="42.60453" lon="-0.13492">
        <ele>1173.7</ele>
        <time>2017-07-30T08:08:23Z</time>
      </trkpt>
      <trkpt lat="42.6045" lon="-0.1349">
        <ele>1174.4</ele>
        <time>2017-07-30T08:08:25Z</time>
      </trkpt>
      <trkpt lat="42.60447" lon="-0.13488">
        <ele>1175</ele>
        <time>2017-07-30T08:08:27Z</time>
      </trkpt>
      <trkpt lat="42.60444" lon="-0.13487">
        <ele>1173.2</ele>
        <time>2017-07-30T08:08:29Z</time>
      </trkpt>
      <trkpt lat="42.6044" lon="-0.13488">
        <ele>1173.6</ele>
        <time>2017-07-30T08:08:31Z</time>
      </trkpt>
      <trkpt lat="42.60437" lon="-0.13488">
        <ele>1173.4</ele>
        <time>2017-07-30T08:08:33Z</time>
      </trkpt>
      <trkpt lat="42.60434" lon="-0.13488">
        <ele>1173.2</ele>
        <time>2017-07-30T08:08:35Z</time>
      </trkpt>
      <trkpt lat="42.6043" lon="-0.13488">
        <ele>1173</ele>
        <time>2017-07-30T08:08:37Z</time>
      </trkpt>
      <trkpt lat="42.60427" lon="-0.13489">
        <ele>1172.8</ele>
        <time>2017-07-30T08:08:39Z</time>
      </trkpt>
      <trkpt lat="42.60424" lon="-0.1349">
        <ele>1172.6</ele>
        <time>2017-07-30T08:08:41Z</time>
      </trkpt>
      <trkpt lat="42.60421" lon="-0.13492">
        <ele>1172.4</ele>
        <time>2017-07-30T08:08:43Z</time>
      </trkpt>
      <trkpt lat="42.60418" lon="-0.13494">
        <ele>1172.1</ele>
        <time>2017-07-30T08:08:45Z</time>
      </trkpt>
      <trkpt lat="42.60416" lon="-0.13497">
        <ele>1171.9</ele>
        <time>2017-07-30T08:08:47Z</time>
      </trkpt>
      <trkpt lat="42.60413" lon="-0.135">
        <ele>1171.7</ele>
        <time>2017-07-30T08:08:49Z</time>
      </trkpt>
      <trkpt lat="42.6041" lon="-0.13503">
        <ele>1171.5</ele>
        <time>2017-07-30T08:08:51Z</time>
      </trkpt>
      <trkpt lat="42.60408" lon="-0.13507">
        <ele>1171.2</ele>
        <time>2017-07-30T08:08:53Z</time>
      </trkpt>
      <trkpt lat="42.60406" lon="-0.13511">
        <ele>1171</ele>
        <time>2017-07-30T08:08:55Z</time>
      </trkpt>
      <trkpt lat="42.60405" lon="-0.13515">
        <ele>1172.5</ele>
        <time>2017-07-30T08:08:57Z</time>
      </trkpt>
      <trkpt lat="42.60403" lon="-0.13519">
        <ele>1174.5</ele>
        <time>2017-07-30T08:08:59Z</time>
      </trkpt>
      <trkpt lat="42.604" lon="-0.13523">
        <ele>1175.4</ele>
        <time>2017-07-30T08:09:01Z</time>
      </trkpt>
      <trkpt lat="42.60399" lon="-0.13527">
        <ele>1175.8</ele>
        <time>2017-07-30T08:09:03Z</time>
      </trkpt>
      <trkpt lat="42.60397" lon="-0.13531">
        <ele>1177</ele>
        <time>2017-07-30T08:09:05Z</time>
      </trkpt>
      <trkpt lat="42.60395" lon="-0.13535">
        <ele>1176.2</ele>
        <time>2017-07-30T08:09:07Z</time>
      </trkpt>
      <trkpt lat="42.60394" lon="-0.13539">
        <ele>1177.4</ele>
        <time>2017-07-30T08:09:09Z</time>
      </trkpt>
      <trkpt lat="42.60392" lon="-0.13542">
        <ele>1177.5</ele>
        <time>2017-07-30T08:09:11Z</time>
      </trkpt>
      <trkpt lat="42.6039" lon="-0.13546">
        <ele>1178.6</ele>
        <time>2017-07-30T08:09:13Z</time>
      </trkpt>
      <trkpt lat="42.60388" lon="-0.13549">
        <ele>1178.6</ele>
        <time>2017-07-30T08:09:15Z</time>
      </trkpt>
      <trkpt lat="42.60385" lon="-0.13552">
        <ele>1177.8</ele>
        <time>2017-07-30T08:09:17Z</time>
      </trkpt>
      <trkpt lat="42.60382" lon="-0.13554">
        <ele>1177.7</ele>
        <time>2017-07-30T08:09:19Z</time>
      </trkpt>
      <trkpt lat="42.60379" lon="-0.13558">
        <ele>1177.5</ele>
        <time>2017-07-30T08:09:21Z</time>
      </trkpt>
      <trkpt lat="42.60377" lon="-0.13561">
        <ele>1177.6</ele>
        <time>2017-07-30T08:09:23Z</time>
      </trkpt>
      <trkpt lat="42.60375" lon="-0.13566">
        <ele>1177.7</ele>
        <time>2017-07-30T08:09:25Z</time>
      </trkpt>
      <trkpt lat="42.60373" lon="-0.1357">
        <ele>1178.1</ele>
        <time>2017-07-30T08:09:27Z</time>
      </trkpt>
      <trkpt lat="42.60371" lon="-0.13573">
        <ele>1179.5</ele>
        <time>2017-07-30T08:09:29Z</time>
      </trkpt>
      <trkpt lat="42.60369" lon="-0.13576">
        <ele>1179.9</ele>
        <time>2017-07-30T08:09:31Z</time>
      </trkpt>
      <trkpt lat="42.60366" lon="-0.13579">
        <ele>1180.4</ele>
        <time>2017-07-30T08:09:33Z</time>
      </trkpt>
      <trkpt lat="42.60364" lon="-0.13582">
        <ele>1179.6</ele>
        <time>2017-07-30T08:09:35Z</time>
      </trkpt>
      <trkpt lat="42.60362" lon="-0.13585">
        <ele>1180.9</ele>
        <time>2017-07-30T08:09:37Z</time>
      </trkpt>
      <trkpt lat="42.60359" lon="-0.13587">
        <ele>1181.4</ele>
        <time>2017-07-30T08:09:39Z</time>
      </trkpt>
      <trkpt lat="42.60357" lon="-0.1359">
        <ele>1180.5</ele>
        <time>2017-07-30T08:09:41Z</time>
      </trkpt>
      <trkpt lat="42.60354" lon="-0.13594">
        <ele>1180.8</ele>
        <time>2017-07-30T08:09:43Z</time>
      </trkpt>
      <trkpt lat="42.60352" lon="-0.13598">
        <ele>1182.5</ele>
        <time>2017-07-30T08:09:45Z</time>
      </trkpt>
      <trkpt lat="42.6035" lon="-0.13602">
        <ele>1182.8</ele>
        <time>2017-07-30T08:09:47Z</time>
      </trkpt>
      <trkpt lat="42.60348" lon="-0.13605">
        <ele>1182.9</ele>
        <time>2017-07-30T08:09:49Z</time>
      </trkpt>
      <trkpt lat="42.60346" lon="-0.13609">
        <ele>1184.2</ele>
        <time>2017-07-30T08:09:51Z</time>
      </trkpt>
      <trkpt lat="42.60343" lon="-0.13612">
        <ele>1182.9</ele>
        <time>2017-07-30T08:09:54Z</time>
      </trkpt>
      <trkpt lat="42.60341" lon="-0.13615">
        <ele>1182.9</ele>
        <time>2017-07-30T08:09:56Z</time>
      </trkpt>
      <trkpt lat="42.60341" lon="-0.13619">
        <ele>1184.3</ele>
        <time>2017-07-30T08:09:58Z</time>
      </trkpt>
      <trkpt lat="42.60341" lon="-0.13623">
        <ele>1185.9</ele>
        <time>2017-07-30T08:10:00Z</time>
      </trkpt>
      <trkpt lat="42.60342" lon="-0.13627">
        <ele>1187.5</ele>
        <time>2017-07-30T08:10:02Z</time>
      </trkpt>
      <trkpt lat="42.60345" lon="-0.1363">
        <ele>1188.9</ele>
        <time>2017-07-30T08:10:05Z</time>
      </trkpt>
      <trkpt lat="42.60348" lon="-0.13627">
        <ele>1190.2</ele>
        <time>2017-07-30T08:10:07Z</time>
      </trkpt>
      <trkpt lat="42.60351" lon="-0.13621">
        <ele>1190.2</ele>
        <time>2017-07-30T08:10:09Z</time>
      </trkpt>
      <trkpt lat="42.60353" lon="-0.13615">
        <ele>1189.1</ele>
        <time>2017-07-30T08:10:11Z</time>
      </trkpt>
      <trkpt lat="42.60355" lon="-0.1361">
        <ele>1189.4</ele>
        <time>2017-07-30T08:10:13Z</time>
      </trkpt>
      <trkpt lat="42.60358" lon="-0.13605">
        <ele>1188.4</ele>
        <time>2017-07-30T08:10:15Z</time>
      </trkpt>
      <trkpt lat="42.60361" lon="-0.13601">
        <ele>1188.3</ele>
        <time>2017-07-30T08:10:17Z</time>
      </trkpt>
      <trkpt lat="42.60364" lon="-0.13598">
        <ele>1188.9</ele>
        <time>2017-07-30T08:10:19Z</time>
      </trkpt>
      <trkpt lat="42.60368" lon="-0.13594">
        <ele>1188.4</ele>
        <time>2017-07-30T08:10:21Z</time>
      </trkpt>
      <trkpt lat="42.60371" lon="-0.13591">
        <ele>1188</ele>
        <time>2017-07-30T08:10:23Z</time>
      </trkpt>
      <trkpt lat="42.60375" lon="-0.13588">
        <ele>1189.1</ele>
        <time>2017-07-30T08:10:25Z</time>
      </trkpt>
      <trkpt lat="42.60378" lon="-0.13586">
        <ele>1188.8</ele>
        <time>2017-07-30T08:10:27Z</time>
      </trkpt>
      <trkpt lat="42.60382" lon="-0.13584">
        <ele>1189.9</ele>
        <time>2017-07-30T08:10:29Z</time>
      </trkpt>
      <trkpt lat="42.60385" lon="-0.13582">
        <ele>1189.6</ele>
        <time>2017-07-30T08:10:31Z</time>
      </trkpt>
      <trkpt lat="42.60388" lon="-0.1358">
        <ele>1190.5</ele>
        <time>2017-07-30T08:10:33Z</time>
      </trkpt>
      <trkpt lat="42.6039" lon="-0.13578">
        <ele>1190.1</ele>
        <time>2017-07-30T08:10:35Z</time>
      </trkpt>
      <trkpt lat="42.60393" lon="-0.13576">
        <ele>1191.1</ele>
        <time>2017-07-30T08:10:37Z</time>
      </trkpt>
      <trkpt lat="42.60396" lon="-0.13573">
        <ele>1189.9</ele>
        <time>2017-07-30T08:10:39Z</time>
      </trkpt>
      <trkpt lat="42.60398" lon="-0.13571">
        <ele>1190.9</ele>
        <time>2017-07-30T08:10:41Z</time>
      </trkpt>
      <trkpt lat="42.60401" lon="-0.1357">
        <ele>1190.7</ele>
        <time>2017-07-30T08:10:43Z</time>
      </trkpt>
      <trkpt lat="42.60404" lon="-0.13569">
        <ele>1191.8</ele>
        <time>2017-07-30T08:10:45Z</time>
      </trkpt>
      <trkpt lat="42.60407" lon="-0.13568">
        <ele>1192.9</ele>
        <time>2017-07-30T08:10:47Z</time>
      </trkpt>
      <trkpt lat="42.6041" lon="-0.13569">
        <ele>1194</ele>
        <time>2017-07-30T08:10:49Z</time>
      </trkpt>
      <trkpt lat="42.60413" lon="-0.13569">
        <ele>1195.1</ele>
        <time>2017-07-30T08:10:51Z</time>
      </trkpt>
      <trkpt lat="42.60416" lon="-0.1357">
        <ele>1196.1</ele>
        <time>2017-07-30T08:10:53Z</time>
      </trkpt>
      <trkpt lat="42.60419" lon="-0.13571">
        <ele>1198.3</ele>
        <time>2017-07-30T08:10:55Z</time>
      </trkpt>
      <trkpt lat="42.60421" lon="-0.13574">
        <ele>1199.2</ele>
        <time>2017-07-30T08:10:57Z</time>
      </trkpt>
      <trkpt lat="42.60425" lon="-0.13576">
        <ele>1199.2</ele>
        <time>2017-07-30T08:10:59Z</time>
      </trkpt>
      <trkpt lat="42.60428" lon="-0.13578">
        <ele>1199.2</ele>
        <time>2017-07-30T08:11:01Z</time>
      </trkpt>
      <trkpt lat="42.60431" lon="-0.13579">
        <ele>1199.1</ele>
        <time>2017-07-30T08:11:03Z</time>
      </trkpt>
      <trkpt lat="42.60434" lon="-0.1358">
        <ele>1199.1</ele>
        <time>2017-07-30T08:11:05Z</time>
      </trkpt>
      <trkpt lat="42.60437" lon="-0.13581">
        <ele>1199.1</ele>
        <time>2017-07-30T08:11:07Z</time>
      </trkpt>
      <trkpt lat="42.6044" lon="-0.13581">
        <ele>1199</ele>
        <time>2017-07-30T08:11:09Z</time>
      </trkpt>
      <trkpt lat="42.60443" lon="-0.13581">
        <ele>1199</ele>
        <time>2017-07-30T08:11:11Z</time>
      </trkpt>
      <trkpt lat="42.60446" lon="-0.13581">
        <ele>1198.7</ele>
        <time>2017-07-30T08:11:13Z</time>
      </trkpt>
      <trkpt lat="42.60449" lon="-0.13582">
        <ele>1198.4</ele>
        <time>2017-07-30T08:11:15Z</time>
      </trkpt>
      <trkpt lat="42.60452" lon="-0.13583">
        <ele>1199.5</ele>
        <time>2017-07-30T08:11:17Z</time>
      </trkpt>
      <trkpt lat="42.60454" lon="-0.13588">
        <ele>1201</ele>
        <time>2017-07-30T08:11:20Z</time>
      </trkpt>
      <trkpt lat="42.60454" lon="-0.13591">
        <ele>1202.8</ele>
        <time>2017-07-30T08:11:22Z</time>
      </trkpt>
      <trkpt lat="42.60452" lon="-0.13594">
        <ele>1201.9</ele>
        <time>2017-07-30T08:11:24Z</time>
      </trkpt>
      <trkpt lat="42.60448" lon="-0.13595">
        <ele>1201</ele>
        <time>2017-07-30T08:11:26Z</time>
      </trkpt>
      <trkpt lat="42.60445" lon="-0.13595">
        <ele>1200</ele>
        <time>2017-07-30T08:11:28Z</time>
      </trkpt>
      <trkpt lat="42.60442" lon="-0.13595">
        <ele>1199</ele>
        <time>2017-07-30T08:11:30Z</time>
      </trkpt>
      <trkpt lat="42.60439" lon="-0.13595">
        <ele>1197.9</ele>
        <time>2017-07-30T08:11:32Z</time>
      </trkpt>
      <trkpt lat="42.60436" lon="-0.13596">
        <ele>1199.6</ele>
        <time>2017-07-30T08:11:34Z</time>
      </trkpt>
      <trkpt lat="42.60433" lon="-0.13597">
        <ele>1199.9</ele>
        <time>2017-07-30T08:11:36Z</time>
      </trkpt>
      <trkpt lat="42.6043" lon="-0.13598">
        <ele>1200.6</ele>
        <time>2017-07-30T08:11:38Z</time>
      </trkpt>
      <trkpt lat="42.60427" lon="-0.13599">
        <ele>1201.5</ele>
        <time>2017-07-30T08:11:40Z</time>
      </trkpt>
      <trkpt lat="42.60424" lon="-0.136">
        <ele>1202.3</ele>
        <time>2017-07-30T08:11:42Z</time>
      </trkpt>
      <trkpt lat="42.60421" lon="-0.13601">
        <ele>1203.2</ele>
        <time>2017-07-30T08:11:44Z</time>
      </trkpt>
      <trkpt lat="42.60418" lon="-0.13603">
        <ele>1204.2</ele>
        <time>2017-07-30T08:11:46Z</time>
      </trkpt>
      <trkpt lat="42.60415" lon="-0.13605">
        <ele>1204.7</ele>
        <time>2017-07-30T08:11:48Z</time>
      </trkpt>
      <trkpt lat="42.60412" lon="-0.13607">
        <ele>1205.2</ele>
        <time>2017-07-30T08:11:50Z</time>
      </trkpt>
      <trkpt lat="42.60408" lon="-0.13609">
        <ele>1205.9</ele>
        <time>2017-07-30T08:11:52Z</time>
      </trkpt>
      <trkpt lat="42.60405" lon="-0.13612">
        <ele>1206.7</ele>
        <time>2017-07-30T08:11:54Z</time>
      </trkpt>
      <trkpt lat="42.60402" lon="-0.13615">
        <ele>1207.7</ele>
        <time>2017-07-30T08:11:56Z</time>
      </trkpt>
      <trkpt lat="42.60399" lon="-0.13618">
        <ele>1208.6</ele>
        <time>2017-07-30T08:11:58Z</time>
      </trkpt>
      <trkpt lat="42.60396" lon="-0.13622">
        <ele>1209.3</ele>
        <time>2017-07-30T08:12:00Z</time>
      </trkpt>
      <trkpt lat="42.60393" lon="-0.13626">
        <ele>1209.8</ele>
        <time>2017-07-30T08:12:02Z</time>
      </trkpt>
      <trkpt lat="42.60391" lon="-0.13629">
        <ele>1210.2</ele>
        <time>2017-07-30T08:12:04Z</time>
      </trkpt>
      <trkpt lat="42.60389" lon="-0.13633">
        <ele>1210.9</ele>
        <time>2017-07-30T08:12:06Z</time>
      </trkpt>
      <trkpt lat="42.60387" lon="-0.13637">
        <ele>1211.5</ele>
        <time>2017-07-30T08:12:08Z</time>
      </trkpt>
      <trkpt lat="42.60385" lon="-0.13641">
        <ele>1212.1</ele>
        <time>2017-07-30T08:12:10Z</time>
      </trkpt>
      <trkpt lat="42.60383" lon="-0.13645">
        <ele>1212.6</ele>
        <time>2017-07-30T08:12:12Z</time>
      </trkpt>
      <trkpt lat="42.60381" lon="-0.13649">
        <ele>1213.1</ele>
        <time>2017-07-30T08:12:14Z</time>
      </trkpt>
      <trkpt lat="42.60379" lon="-0.13653">
        <ele>1213.2</ele>
        <time>2017-07-30T08:12:16Z</time>
      </trkpt>
      <trkpt lat="42.60376" lon="-0.13657">
        <ele>1213.2</ele>
        <time>2017-07-30T08:12:18Z</time>
      </trkpt>
      <trkpt lat="42.60373" lon="-0.13662">
        <ele>1213.8</ele>
        <time>2017-07-30T08:12:20Z</time>
      </trkpt>
      <trkpt lat="42.60372" lon="-0.13665">
        <ele>1214.3</ele>
        <time>2017-07-30T08:12:22Z</time>
      </trkpt>
      <trkpt lat="42.60371" lon="-0.13669">
        <ele>1214.8</ele>
        <time>2017-07-30T08:12:24Z</time>
      </trkpt>
      <trkpt lat="42.6037" lon="-0.13673">
        <ele>1215.1</ele>
        <time>2017-07-30T08:12:26Z</time>
      </trkpt>
      <trkpt lat="42.60368" lon="-0.13677">
        <ele>1215.5</ele>
        <time>2017-07-30T08:12:28Z</time>
      </trkpt>
      <trkpt lat="42.60367" lon="-0.13681">
        <ele>1215.9</ele>
        <time>2017-07-30T08:12:30Z</time>
      </trkpt>
      <trkpt lat="42.60366" lon="-0.13685">
        <ele>1216.4</ele>
        <time>2017-07-30T08:12:32Z</time>
      </trkpt>
      <trkpt lat="42.60364" lon="-0.13688">
        <ele>1216.9</ele>
        <time>2017-07-30T08:12:34Z</time>
      </trkpt>
      <trkpt lat="42.60362" lon="-0.13692">
        <ele>1217.5</ele>
        <time>2017-07-30T08:12:36Z</time>
      </trkpt>
      <trkpt lat="42.6036" lon="-0.13695">
        <ele>1218</ele>
        <time>2017-07-30T08:12:38Z</time>
      </trkpt>
      <trkpt lat="42.60358" lon="-0.13698">
        <ele>1218.5</ele>
        <time>2017-07-30T08:12:40Z</time>
      </trkpt>
      <trkpt lat="42.60356" lon="-0.13701">
        <ele>1218.9</ele>
        <time>2017-07-30T08:12:42Z</time>
      </trkpt>
      <trkpt lat="42.60354" lon="-0.13705">
        <ele>1219.3</ele>
        <time>2017-07-30T08:12:44Z</time>
      </trkpt>
      <trkpt lat="42.60352" lon="-0.13709">
        <ele>1219.7</ele>
        <time>2017-07-30T08:12:46Z</time>
      </trkpt>
      <trkpt lat="42.6035" lon="-0.13712">
        <ele>1220.1</ele>
        <time>2017-07-30T08:12:48Z</time>
      </trkpt>
      <trkpt lat="42.60348" lon="-0.13716">
        <ele>1221</ele>
        <time>2017-07-30T08:12:50Z</time>
      </trkpt>
      <trkpt lat="42.60346" lon="-0.13719">
        <ele>1221.9</ele>
        <time>2017-07-30T08:12:52Z</time>
      </trkpt>
      <trkpt lat="42.60344" lon="-0.13723">
        <ele>1222.7</ele>
        <time>2017-07-30T08:12:54Z</time>
      </trkpt>
      <trkpt lat="42.60342" lon="-0.13727">
        <ele>1222.9</ele>
        <time>2017-07-30T08:12:56Z</time>
      </trkpt>
      <trkpt lat="42.60341" lon="-0.1373">
        <ele>1223.1</ele>
        <time>2017-07-30T08:12:58Z</time>
      </trkpt>
      <trkpt lat="42.60339" lon="-0.13734">
        <ele>1223.4</ele>
        <time>2017-07-30T08:13:00Z</time>
      </trkpt>
      <trkpt lat="42.60339" lon="-0.13738">
        <ele>1224.1</ele>
        <time>2017-07-30T08:13:02Z</time>
      </trkpt>
      <trkpt lat="42.60339" lon="-0.13742">
        <ele>1224.9</ele>
        <time>2017-07-30T08:13:04Z</time>
      </trkpt>
      <trkpt lat="42.60338" lon="-0.13747">
        <ele>1225.8</ele>
        <time>2017-07-30T08:13:07Z</time>
      </trkpt>
      <trkpt lat="42.60338" lon="-0.13752">
        <ele>1226.1</ele>
        <time>2017-07-30T08:13:10Z</time>
      </trkpt>
      <trkpt lat="42.60338" lon="-0.13756">
        <ele>1226.4</ele>
        <time>2017-07-30T08:13:12Z</time>
      </trkpt>
      <trkpt lat="42.60338" lon="-0.1376">
        <ele>1226.6</ele>
        <time>2017-07-30T08:13:14Z</time>
      </trkpt>
      <trkpt lat="42.60338" lon="-0.13764">
        <ele>1227.6</ele>
        <time>2017-07-30T08:13:16Z</time>
      </trkpt>
      <trkpt lat="42.60338" lon="-0.13768">
        <ele>1228.5</ele>
        <time>2017-07-30T08:13:18Z</time>
      </trkpt>
      <trkpt lat="42.60338" lon="-0.13772">
        <ele>1229.3</ele>
        <time>2017-07-30T08:13:20Z</time>
      </trkpt>
      <trkpt lat="42.60338" lon="-0.13776">
        <ele>1229.3</ele>
        <time>2017-07-30T08:13:22Z</time>
      </trkpt>
      <trkpt lat="42.60338" lon="-0.13781">
        <ele>1230.5</ele>
        <time>2017-07-30T08:13:25Z</time>
      </trkpt>
      <trkpt lat="42.60338" lon="-0.13787">
        <ele>1231.2</ele>
        <time>2017-07-30T08:13:28Z</time>
      </trkpt>
      <trkpt lat="42.60338" lon="-0.13792">
        <ele>1231.8</ele>
        <time>2017-07-30T08:13:31Z</time>
      </trkpt>
      <trkpt lat="42.60338" lon="-0.13796">
        <ele>1232.4</ele>
        <time>2017-07-30T08:13:33Z</time>
      </trkpt>
      <trkpt lat="42.60338" lon="-0.138">
        <ele>1233</ele>
        <time>2017-07-30T08:13:35Z</time>
      </trkpt>
      <trkpt lat="42.60339" lon="-0.13805">
        <ele>1234.8</ele>
        <time>2017-07-30T08:13:37Z</time>
      </trkpt>
      <trkpt lat="42.60339" lon="-0.13809">
        <ele>1235.3</ele>
        <time>2017-07-30T08:13:39Z</time>
      </trkpt>
      <trkpt lat="42.60339" lon="-0.13814">
        <ele>1235.9</ele>
        <time>2017-07-30T08:13:41Z</time>
      </trkpt>
      <trkpt lat="42.6034" lon="-0.13818">
        <ele>1236.6</ele>
        <time>2017-07-30T08:13:43Z</time>
      </trkpt>
      <trkpt lat="42.6034" lon="-0.13823">
        <ele>1237.4</ele>
        <time>2017-07-30T08:13:45Z</time>
      </trkpt>
      <trkpt lat="42.60341" lon="-0.13828">
        <ele>1238.7</ele>
        <time>2017-07-30T08:13:47Z</time>
      </trkpt>
      <trkpt lat="42.60341" lon="-0.13832">
        <ele>1239.2</ele>
        <time>2017-07-30T08:13:49Z</time>
      </trkpt>
      <trkpt lat="42.60341" lon="-0.13837">
        <ele>1239.7</ele>
        <time>2017-07-30T08:13:51Z</time>
      </trkpt>
      <trkpt lat="42.6034" lon="-0.13842">
        <ele>1240.2</ele>
        <time>2017-07-30T08:13:53Z</time>
      </trkpt>
      <trkpt lat="42.60339" lon="-0.13847">
        <ele>1240.7</ele>
        <time>2017-07-30T08:13:55Z</time>
      </trkpt>
      <trkpt lat="42.60339" lon="-0.13852">
        <ele>1239.9</ele>
        <time>2017-07-30T08:13:57Z</time>
      </trkpt>
      <trkpt lat="42.60338" lon="-0.13857">
        <ele>1240.3</ele>
        <time>2017-07-30T08:13:59Z</time>
      </trkpt>
      <trkpt lat="42.60337" lon="-0.13861">
        <ele>1240.7</ele>
        <time>2017-07-30T08:14:01Z</time>
      </trkpt>
      <trkpt lat="42.60337" lon="-0.13864">
        <ele>1241.1</ele>
        <time>2017-07-30T08:14:03Z</time>
      </trkpt>
      <trkpt lat="42.60336" lon="-0.13868">
        <ele>1241.6</ele>
        <time>2017-07-30T08:14:05Z</time>
      </trkpt>
      <trkpt lat="42.60335" lon="-0.13872">
        <ele>1241.1</ele>
        <time>2017-07-30T08:14:07Z</time>
      </trkpt>
      <trkpt lat="42.60335" lon="-0.13877">
        <ele>1241.8</ele>
        <time>2017-07-30T08:14:09Z</time>
      </trkpt>
      <trkpt lat="42.60335" lon="-0.13882">
        <ele>1242.5</ele>
        <time>2017-07-30T08:14:11Z</time>
      </trkpt>
      <trkpt lat="42.60335" lon="-0.13886">
        <ele>1243.2</ele>
        <time>2017-07-30T08:14:13Z</time>
      </trkpt>
      <trkpt lat="42.60335" lon="-0.13891">
        <ele>1243.9</ele>
        <time>2017-07-30T08:14:15Z</time>
      </trkpt>
      <trkpt lat="42.60334" lon="-0.13896">
        <ele>1244.6</ele>
        <time>2017-07-30T08:14:17Z</time>
      </trkpt>
      <trkpt lat="42.60334" lon="-0.139">
        <ele>1245.4</ele>
        <time>2017-07-30T08:14:19Z</time>
      </trkpt>
      <trkpt lat="42.60333" lon="-0.13905">
        <ele>1247.5</ele>
        <time>2017-07-30T08:14:21Z</time>
      </trkpt>
      <trkpt lat="42.60332" lon="-0.1391">
        <ele>1247.6</ele>
        <time>2017-07-30T08:14:23Z</time>
      </trkpt>
      <trkpt lat="42.60331" lon="-0.13914">
        <ele>1248.5</ele>
        <time>2017-07-30T08:14:25Z</time>
      </trkpt>
      <trkpt lat="42.60329" lon="-0.13917">
        <ele>1247.4</ele>
        <time>2017-07-30T08:14:27Z</time>
      </trkpt>
      <trkpt lat="42.60326" lon="-0.1392">
        <ele>1248.4</ele>
        <time>2017-07-30T08:14:29Z</time>
      </trkpt>
      <trkpt lat="42.60324" lon="-0.13923">
        <ele>1248.2</ele>
        <time>2017-07-30T08:14:31Z</time>
      </trkpt>
      <trkpt lat="42.60322" lon="-0.13925">
        <ele>1246.9</ele>
        <time>2017-07-30T08:14:33Z</time>
      </trkpt>
      <trkpt lat="42.6032" lon="-0.13928">
        <ele>1246.7</ele>
        <time>2017-07-30T08:14:35Z</time>
      </trkpt>
      <trkpt lat="42.60317" lon="-0.1393">
        <ele>1246.7</ele>
        <time>2017-07-30T08:14:37Z</time>
      </trkpt>
      <trkpt lat="42.60315" lon="-0.13933">
        <ele>1246.7</ele>
        <time>2017-07-30T08:14:39Z</time>
      </trkpt>
      <trkpt lat="42.60313" lon="-0.13935">
        <ele>1246.7</ele>
        <time>2017-07-30T08:14:41Z</time>
      </trkpt>
      <trkpt lat="42.60311" lon="-0.13938">
        <ele>1246.7</ele>
        <time>2017-07-30T08:14:43Z</time>
      </trkpt>
      <trkpt lat="42.60309" lon="-0.1394">
        <ele>1246.8</ele>
        <time>2017-07-30T08:14:45Z</time>
      </trkpt>
      <trkpt lat="42.60306" lon="-0.13942">
        <ele>1245.9</ele>
        <time>2017-07-30T08:14:47Z</time>
      </trkpt>
      <trkpt lat="42.60304" lon="-0.13945">
        <ele>1246.1</ele>
        <time>2017-07-30T08:14:49Z</time>
      </trkpt>
      <trkpt lat="42.60301" lon="-0.13947">
        <ele>1246.1</ele>
        <time>2017-07-30T08:14:51Z</time>
      </trkpt>
      <trkpt lat="42.60298" lon="-0.1395">
        <ele>1246.5</ele>
        <time>2017-07-30T08:14:53Z</time>
      </trkpt>
      <trkpt lat="42.60296" lon="-0.13952">
        <ele>1247</ele>
        <time>2017-07-30T08:14:55Z</time>
      </trkpt>
      <trkpt lat="42.60293" lon="-0.13956">
        <ele>1246.1</ele>
        <time>2017-07-30T08:14:58Z</time>
      </trkpt>
      <trkpt lat="42.6029" lon="-0.13959">
        <ele>1246.9</ele>
        <time>2017-07-30T08:15:01Z</time>
      </trkpt>
      <trkpt lat="42.60288" lon="-0.13962">
        <ele>1247.8</ele>
        <time>2017-07-30T08:15:03Z</time>
      </trkpt>
      <trkpt lat="42.60285" lon="-0.13964">
        <ele>1247.1</ele>
        <time>2017-07-30T08:15:05Z</time>
      </trkpt>
      <trkpt lat="42.60283" lon="-0.13968">
        <ele>1248.6</ele>
        <time>2017-07-30T08:15:07Z</time>
      </trkpt>
      <trkpt lat="42.60281" lon="-0.13971">
        <ele>1249.1</ele>
        <time>2017-07-30T08:15:09Z</time>
      </trkpt>
      <trkpt lat="42.60279" lon="-0.13975">
        <ele>1249.4</ele>
        <time>2017-07-30T08:15:11Z</time>
      </trkpt>
      <trkpt lat="42.60277" lon="-0.13978">
        <ele>1250.3</ele>
        <time>2017-07-30T08:15:13Z</time>
      </trkpt>
      <trkpt lat="42.60275" lon="-0.13982">
        <ele>1250.1</ele>
        <time>2017-07-30T08:15:15Z</time>
      </trkpt>
      <trkpt lat="42.60274" lon="-0.13986">
        <ele>1250.2</ele>
        <time>2017-07-30T08:15:17Z</time>
      </trkpt>
      <trkpt lat="42.60273" lon="-0.13989">
        <ele>1250.7</ele>
        <time>2017-07-30T08:15:19Z</time>
      </trkpt>
      <trkpt lat="42.60271" lon="-0.13993">
        <ele>1250.2</ele>
        <time>2017-07-30T08:15:21Z</time>
      </trkpt>
      <trkpt lat="42.6027" lon="-0.13997">
        <ele>1250.5</ele>
        <time>2017-07-30T08:15:23Z</time>
      </trkpt>
      <trkpt lat="42.60269" lon="-0.14001">
        <ele>1249.6</ele>
        <time>2017-07-30T08:15:25Z</time>
      </trkpt>
      <trkpt lat="42.60268" lon="-0.14005">
        <ele>1249.8</ele>
        <time>2017-07-30T08:15:27Z</time>
      </trkpt>
      <trkpt lat="42.60267" lon="-0.1401">
        <ele>1250.1</ele>
        <time>2017-07-30T08:15:29Z</time>
      </trkpt>
      <trkpt lat="42.60266" lon="-0.14015">
        <ele>1249.2</ele>
        <time>2017-07-30T08:15:31Z</time>
      </trkpt>
      <trkpt lat="42.60265" lon="-0.1402">
        <ele>1249.4</ele>
        <time>2017-07-30T08:15:33Z</time>
      </trkpt>
      <trkpt lat="42.60264" lon="-0.14025">
        <ele>1249.5</ele>
        <time>2017-07-30T08:15:35Z</time>
      </trkpt>
      <trkpt lat="42.60263" lon="-0.14029">
        <ele>1249.6</ele>
        <time>2017-07-30T08:15:37Z</time>
      </trkpt>
      <trkpt lat="42.60263" lon="-0.14034">
        <ele>1249.7</ele>
        <time>2017-07-30T08:15:39Z</time>
      </trkpt>
      <trkpt lat="42.60263" lon="-0.14038">
        <ele>1248.4</ele>
        <time>2017-07-30T08:15:41Z</time>
      </trkpt>
      <trkpt lat="42.60263" lon="-0.14043">
        <ele>1248.4</ele>
        <time>2017-07-30T08:15:43Z</time>
      </trkpt>
      <trkpt lat="42.60263" lon="-0.14047">
        <ele>1248.3</ele>
        <time>2017-07-30T08:15:45Z</time>
      </trkpt>
      <trkpt lat="42.60263" lon="-0.14051">
        <ele>1249.6</ele>
        <time>2017-07-30T08:15:47Z</time>
      </trkpt>
      <trkpt lat="42.60264" lon="-0.14056">
        <ele>1249.5</ele>
        <time>2017-07-30T08:15:49Z</time>
      </trkpt>
      <trkpt lat="42.60264" lon="-0.1406">
        <ele>1249.4</ele>
        <time>2017-07-30T08:15:51Z</time>
      </trkpt>
      <trkpt lat="42.60265" lon="-0.14064">
        <ele>1249.2</ele>
        <time>2017-07-30T08:15:53Z</time>
      </trkpt>
      <trkpt lat="42.60266" lon="-0.14068">
        <ele>1250.3</ele>
        <time>2017-07-30T08:15:55Z</time>
      </trkpt>
      <trkpt lat="42.60268" lon="-0.14072">
        <ele>1250</ele>
        <time>2017-07-30T08:15:57Z</time>
      </trkpt>
      <trkpt lat="42.6027" lon="-0.14076">
        <ele>1251.1</ele>
        <time>2017-07-30T08:15:59Z</time>
      </trkpt>
      <trkpt lat="42.60272" lon="-0.1408">
        <ele>1251.1</ele>
        <time>2017-07-30T08:16:01Z</time>
      </trkpt>
      <trkpt lat="42.60272" lon="-0.14085">
        <ele>1250.8</ele>
        <time>2017-07-30T08:16:04Z</time>
      </trkpt>
      <trkpt lat="42.60274" lon="-0.14089">
        <ele>1251.2</ele>
        <time>2017-07-30T08:16:07Z</time>
      </trkpt>
      <trkpt lat="42.60276" lon="-0.14092">
        <ele>1251.2</ele>
        <time>2017-07-30T08:16:09Z</time>
      </trkpt>
      <trkpt lat="42.60277" lon="-0.14095">
        <ele>1251.8</ele>
        <time>2017-07-30T08:16:11Z</time>
      </trkpt>
      <trkpt lat="42.60279" lon="-0.14098">
        <ele>1252.3</ele>
        <time>2017-07-30T08:16:13Z</time>
      </trkpt>
      <trkpt lat="42.60281" lon="-0.14101">
        <ele>1252.3</ele>
        <time>2017-07-30T08:16:15Z</time>
      </trkpt>
      <trkpt lat="42.60284" lon="-0.14102">
        <ele>1252.8</ele>
        <time>2017-07-30T08:16:17Z</time>
      </trkpt>
      <trkpt lat="42.60287" lon="-0.14102">
        <ele>1254.1</ele>
        <time>2017-07-30T08:16:19Z</time>
      </trkpt>
      <trkpt lat="42.6029" lon="-0.141">
        <ele>1256.1</ele>
        <time>2017-07-30T08:16:21Z</time>
      </trkpt>
      <trkpt lat="42.60291" lon="-0.14097">
        <ele>1256.8</ele>
        <time>2017-07-30T08:16:23Z</time>
      </trkpt>
      <trkpt lat="42.60291" lon="-0.14093">
        <ele>1257.5</ele>
        <time>2017-07-30T08:16:25Z</time>
      </trkpt>
      <trkpt lat="42.60289" lon="-0.14089">
        <ele>1258.2</ele>
        <time>2017-07-30T08:16:27Z</time>
      </trkpt>
      <trkpt lat="42.60287" lon="-0.14085">
        <ele>1256.6</ele>
        <time>2017-07-30T08:16:29Z</time>
      </trkpt>
      <trkpt lat="42.60286" lon="-0.14081">
        <ele>1257.1</ele>
        <time>2017-07-30T08:16:31Z</time>
      </trkpt>
      <trkpt lat="42.60284" lon="-0.14077">
        <ele>1256.1</ele>
        <time>2017-07-30T08:16:33Z</time>
      </trkpt>
      <trkpt lat="42.60283" lon="-0.14073">
        <ele>1256.6</ele>
        <time>2017-07-30T08:16:35Z</time>
      </trkpt>
      <trkpt lat="42.60282" lon="-0.14068">
        <ele>1257</ele>
        <time>2017-07-30T08:16:37Z</time>
      </trkpt>
      <trkpt lat="42.60282" lon="-0.14063">
        <ele>1255.9</ele>
        <time>2017-07-30T08:16:39Z</time>
      </trkpt>
      <trkpt lat="42.60282" lon="-0.14059">
        <ele>1256.4</ele>
        <time>2017-07-30T08:16:41Z</time>
      </trkpt>
      <trkpt lat="42.60282" lon="-0.14054">
        <ele>1258.1</ele>
        <time>2017-07-30T08:16:43Z</time>
      </trkpt>
      <trkpt lat="42.60283" lon="-0.1405">
        <ele>1258.3</ele>
        <time>2017-07-30T08:16:45Z</time>
      </trkpt>
      <trkpt lat="42.60283" lon="-0.14045">
        <ele>1258.4</ele>
        <time>2017-07-30T08:16:47Z</time>
      </trkpt>
      <trkpt lat="42.60284" lon="-0.14041">
        <ele>1258.4</ele>
        <time>2017-07-30T08:16:49Z</time>
      </trkpt>
      <trkpt lat="42.60285" lon="-0.14037">
        <ele>1258.3</ele>
        <time>2017-07-30T08:16:51Z</time>
      </trkpt>
      <trkpt lat="42.60286" lon="-0.14032">
        <ele>1259.9</ele>
        <time>2017-07-30T08:16:53Z</time>
      </trkpt>
      <trkpt lat="42.60288" lon="-0.14028">
        <ele>1259.8</ele>
        <time>2017-07-30T08:16:55Z</time>
      </trkpt>
      <trkpt lat="42.6029" lon="-0.14024">
        <ele>1261.4</ele>
        <time>2017-07-30T08:16:57Z</time>
      </trkpt>
      <trkpt lat="42.60292" lon="-0.1402">
        <ele>1263.1</ele>
        <time>2017-07-30T08:16:59Z</time>
      </trkpt>
      <trkpt lat="42.60295" lon="-0.14016">
        <ele>1264.5</ele>
        <time>2017-07-30T08:17:01Z</time>
      </trkpt>
      <trkpt lat="42.60298" lon="-0.14012">
        <ele>1264</ele>
        <time>2017-07-30T08:17:03Z</time>
      </trkpt>
      <trkpt lat="42.60301" lon="-0.14008">
        <ele>1265</ele>
        <time>2017-07-30T08:17:05Z</time>
      </trkpt>
      <trkpt lat="42.60304" lon="-0.14004">
        <ele>1266.4</ele>
        <time>2017-07-30T08:17:07Z</time>
      </trkpt>
      <trkpt lat="42.60307" lon="-0.14001">
        <ele>1266.8</ele>
        <time>2017-07-30T08:17:09Z</time>
      </trkpt>
      <trkpt lat="42.6031" lon="-0.13998">
        <ele>1267</ele>
        <time>2017-07-30T08:17:11Z</time>
      </trkpt>
      <trkpt lat="42.60314" lon="-0.13996">
        <ele>1269.2</ele>
        <time>2017-07-30T08:17:13Z</time>
      </trkpt>
      <trkpt lat="42.60318" lon="-0.13994">
        <ele>1269.1</ele>
        <time>2017-07-30T08:17:15Z</time>
      </trkpt>
      <trkpt lat="42.60323" lon="-0.13993">
        <ele>1270.2</ele>
        <time>2017-07-30T08:17:17Z</time>
      </trkpt>
      <trkpt lat="42.60326" lon="-0.13992">
        <ele>1272.2</ele>
        <time>2017-07-30T08:17:19Z</time>
      </trkpt>
      <trkpt lat="42.6033" lon="-0.13992">
        <ele>1273</ele>
        <time>2017-07-30T08:17:21Z</time>
      </trkpt>
      <trkpt lat="42.60333" lon="-0.13991">
        <ele>1273</ele>
        <time>2017-07-30T08:17:23Z</time>
      </trkpt>
      <trkpt lat="42.60335" lon="-0.1399">
        <ele>1272.4</ele>
        <time>2017-07-30T08:17:25Z</time>
      </trkpt>
      <trkpt lat="42.60339" lon="-0.13988">
        <ele>1272</ele>
        <time>2017-07-30T08:17:27Z</time>
      </trkpt>
      <trkpt lat="42.60342" lon="-0.13987">
        <ele>1271.4</ele>
        <time>2017-07-30T08:17:29Z</time>
      </trkpt>
      <trkpt lat="42.60345" lon="-0.13986">
        <ele>1270.9</ele>
        <time>2017-07-30T08:17:31Z</time>
      </trkpt>
      <trkpt lat="42.60348" lon="-0.13985">
        <ele>1270.5</ele>
        <time>2017-07-30T08:17:33Z</time>
      </trkpt>
      <trkpt lat="42.60351" lon="-0.13984">
        <ele>1270.2</ele>
        <time>2017-07-30T08:17:35Z</time>
      </trkpt>
      <trkpt lat="42.60354" lon="-0.13982">
        <ele>1269.9</ele>
        <time>2017-07-30T08:17:37Z</time>
      </trkpt>
      <trkpt lat="42.60357" lon="-0.1398">
        <ele>1269.6</ele>
        <time>2017-07-30T08:17:39Z</time>
      </trkpt>
      <trkpt lat="42.6036" lon="-0.13979">
        <ele>1269.2</ele>
        <time>2017-07-30T08:17:41Z</time>
      </trkpt>
      <trkpt lat="42.60363" lon="-0.13978">
        <ele>1268.8</ele>
        <time>2017-07-30T08:17:43Z</time>
      </trkpt>
      <trkpt lat="42.60366" lon="-0.13978">
        <ele>1268.3</ele>
        <time>2017-07-30T08:17:45Z</time>
      </trkpt>
      <trkpt lat="42.60369" lon="-0.13977">
        <ele>1268.4</ele>
        <time>2017-07-30T08:17:47Z</time>
      </trkpt>
      <trkpt lat="42.60372" lon="-0.13975">
        <ele>1268.6</ele>
        <time>2017-07-30T08:17:49Z</time>
      </trkpt>
      <trkpt lat="42.60375" lon="-0.13973">
        <ele>1268.8</ele>
        <time>2017-07-30T08:17:51Z</time>
      </trkpt>
      <trkpt lat="42.60377" lon="-0.13972">
        <ele>1268.9</ele>
        <time>2017-07-30T08:17:53Z</time>
      </trkpt>
      <trkpt lat="42.6038" lon="-0.13969">
        <ele>1269</ele>
        <time>2017-07-30T08:17:55Z</time>
      </trkpt>
      <trkpt lat="42.60382" lon="-0.13967">
        <ele>1269.1</ele>
        <time>2017-07-30T08:17:57Z</time>
      </trkpt>
      <trkpt lat="42.60384" lon="-0.13963">
        <ele>1269.2</ele>
        <time>2017-07-30T08:17:59Z</time>
      </trkpt>
      <trkpt lat="42.60386" lon="-0.1396">
        <ele>1269.5</ele>
        <time>2017-07-30T08:18:01Z</time>
      </trkpt>
      <trkpt lat="42.60388" lon="-0.13956">
        <ele>1269.8</ele>
        <time>2017-07-30T08:18:03Z</time>
      </trkpt>
      <trkpt lat="42.6039" lon="-0.13952">
        <ele>1270</ele>
        <time>2017-07-30T08:18:05Z</time>
      </trkpt>
      <trkpt lat="42.60391" lon="-0.13948">
        <ele>1269.8</ele>
        <time>2017-07-30T08:18:07Z</time>
      </trkpt>
      <trkpt lat="42.60393" lon="-0.13944">
        <ele>1269.7</ele>
        <time>2017-07-30T08:18:09Z</time>
      </trkpt>
      <trkpt lat="42.60394" lon="-0.13939">
        <ele>1269.8</ele>
        <time>2017-07-30T08:18:11Z</time>
      </trkpt>
      <trkpt lat="42.60395" lon="-0.13934">
        <ele>1269.2</ele>
        <time>2017-07-30T08:18:13Z</time>
      </trkpt>
      <trkpt lat="42.60396" lon="-0.1393">
        <ele>1268.8</ele>
        <time>2017-07-30T08:18:15Z</time>
      </trkpt>
      <trkpt lat="42.60396" lon="-0.13925">
        <ele>1270</ele>
        <time>2017-07-30T08:18:17Z</time>
      </trkpt>
      <trkpt lat="42.60397" lon="-0.13921">
        <ele>1269.6</ele>
        <time>2017-07-30T08:18:19Z</time>
      </trkpt>
      <trkpt lat="42.60399" lon="-0.13917">
        <ele>1269.2</ele>
        <time>2017-07-30T08:18:21Z</time>
      </trkpt>
      <trkpt lat="42.604" lon="-0.13913">
        <ele>1270.5</ele>
        <time>2017-07-30T08:18:23Z</time>
      </trkpt>
      <trkpt lat="42.60401" lon="-0.13908">
        <ele>1270</ele>
        <time>2017-07-30T08:18:25Z</time>
      </trkpt>
      <trkpt lat="42.60403" lon="-0.13903">
        <ele>1271.1</ele>
        <time>2017-07-30T08:18:27Z</time>
      </trkpt>
      <trkpt lat="42.60404" lon="-0.13899">
        <ele>1270.4</ele>
        <time>2017-07-30T08:18:29Z</time>
      </trkpt>
      <trkpt lat="42.60406" lon="-0.13895">
        <ele>1271.4</ele>
        <time>2017-07-30T08:18:31Z</time>
      </trkpt>
      <trkpt lat="42.60407" lon="-0.13891">
        <ele>1270.7</ele>
        <time>2017-07-30T08:18:33Z</time>
      </trkpt>
      <trkpt lat="42.60409" lon="-0.13887">
        <ele>1271.5</ele>
        <time>2017-07-30T08:18:35Z</time>
      </trkpt>
      <trkpt lat="42.60411" lon="-0.13883">
        <ele>1271.6</ele>
        <time>2017-07-30T08:18:37Z</time>
      </trkpt>
      <trkpt lat="42.60413" lon="-0.13879">
        <ele>1272.3</ele>
        <time>2017-07-30T08:18:39Z</time>
      </trkpt>
      <trkpt lat="42.60414" lon="-0.13875">
        <ele>1271.5</ele>
        <time>2017-07-30T08:18:41Z</time>
      </trkpt>
      <trkpt lat="42.60416" lon="-0.13871">
        <ele>1272.1</ele>
        <time>2017-07-30T08:18:43Z</time>
      </trkpt>
      <trkpt lat="42.60418" lon="-0.13865">
        <ele>1272.1</ele>
        <time>2017-07-30T08:18:45Z</time>
      </trkpt>
      <trkpt lat="42.6042" lon="-0.13861">
        <ele>1271.6</ele>
        <time>2017-07-30T08:18:47Z</time>
      </trkpt>
      <trkpt lat="42.60421" lon="-0.13858">
        <ele>1273.2</ele>
        <time>2017-07-30T08:18:49Z</time>
      </trkpt>
      <trkpt lat="42.60423" lon="-0.13855">
        <ele>1272.7</ele>
        <time>2017-07-30T08:18:51Z</time>
      </trkpt>
      <trkpt lat="42.60424" lon="-0.13852">
        <ele>1272.3</ele>
        <time>2017-07-30T08:18:53Z</time>
      </trkpt>
      <trkpt lat="42.60426" lon="-0.13847">
        <ele>1273.2</ele>
        <time>2017-07-30T08:18:56Z</time>
      </trkpt>
      <trkpt lat="42.60427" lon="-0.13843">
        <ele>1272.7</ele>
        <time>2017-07-30T08:18:58Z</time>
      </trkpt>
      <trkpt lat="42.60428" lon="-0.1384">
        <ele>1273.5</ele>
        <time>2017-07-30T08:19:00Z</time>
      </trkpt>
      <trkpt lat="42.60429" lon="-0.13836">
        <ele>1273.6</ele>
        <time>2017-07-30T08:19:02Z</time>
      </trkpt>
      <trkpt lat="42.60431" lon="-0.13833">
        <ele>1274.5</ele>
        <time>2017-07-30T08:19:04Z</time>
      </trkpt>
      <trkpt lat="42.60434" lon="-0.13831">
        <ele>1274.1</ele>
        <time>2017-07-30T08:19:06Z</time>
      </trkpt>
      <trkpt lat="42.60436" lon="-0.13829">
        <ele>1275.4</ele>
        <time>2017-07-30T08:19:08Z</time>
      </trkpt>
      <trkpt lat="42.6044" lon="-0.13831">
        <ele>1277.9</ele>
        <time>2017-07-30T08:19:11Z</time>
      </trkpt>
      <trkpt lat="42.60441" lon="-0.13834">
        <ele>1278.3</ele>
        <time>2017-07-30T08:19:13Z</time>
      </trkpt>
      <trkpt lat="42.60441" lon="-0.13838">
        <ele>1278.9</ele>
        <time>2017-07-30T08:19:15Z</time>
      </trkpt>
      <trkpt lat="42.60438" lon="-0.13842">
        <ele>1278.4</ele>
        <time>2017-07-30T08:19:17Z</time>
      </trkpt>
      <trkpt lat="42.60435" lon="-0.13845">
        <ele>1278</ele>
        <time>2017-07-30T08:19:19Z</time>
      </trkpt>
      <trkpt lat="42.60432" lon="-0.13847">
        <ele>1276.7</ele>
        <time>2017-07-30T08:19:21Z</time>
      </trkpt>
      <trkpt lat="42.60431" lon="-0.1385">
        <ele>1277.5</ele>
        <time>2017-07-30T08:19:23Z</time>
      </trkpt>
      <trkpt lat="42.6043" lon="-0.13854">
        <ele>1276.7</ele>
        <time>2017-07-30T08:19:25Z</time>
      </trkpt>
      <trkpt lat="42.60429" lon="-0.13859">
        <ele>1277.4</ele>
        <time>2017-07-30T08:19:27Z</time>
      </trkpt>
      <trkpt lat="42.60429" lon="-0.13863">
        <ele>1278.1</ele>
        <time>2017-07-30T08:19:29Z</time>
      </trkpt>
      <trkpt lat="42.60429" lon="-0.13867">
        <ele>1278.9</ele>
        <time>2017-07-30T08:19:31Z</time>
      </trkpt>
      <trkpt lat="42.60428" lon="-0.13871">
        <ele>1279.8</ele>
        <time>2017-07-30T08:19:33Z</time>
      </trkpt>
      <trkpt lat="42.60427" lon="-0.13875">
        <ele>1278.2</ele>
        <time>2017-07-30T08:19:35Z</time>
      </trkpt>
      <trkpt lat="42.60426" lon="-0.13879">
        <ele>1279.1</ele>
        <time>2017-07-30T08:19:37Z</time>
      </trkpt>
      <trkpt lat="42.60426" lon="-0.13882">
        <ele>1280.1</ele>
        <time>2017-07-30T08:19:39Z</time>
      </trkpt>
      <trkpt lat="42.60424" lon="-0.13886">
        <ele>1280.9</ele>
        <time>2017-07-30T08:19:41Z</time>
      </trkpt>
      <trkpt lat="42.60423" lon="-0.13889">
        <ele>1280.1</ele>
        <time>2017-07-30T08:19:43Z</time>
      </trkpt>
      <trkpt lat="42.60423" lon="-0.13893">
        <ele>1280.8</ele>
        <time>2017-07-30T08:19:45Z</time>
      </trkpt>
      <trkpt lat="42.60422" lon="-0.13898">
        <ele>1281.5</ele>
        <time>2017-07-30T08:19:47Z</time>
      </trkpt>
      <trkpt lat="42.60422" lon="-0.13902">
        <ele>1282.3</ele>
        <time>2017-07-30T08:19:49Z</time>
      </trkpt>
      <trkpt lat="42.60422" lon="-0.13905">
        <ele>1282.9</ele>
        <time>2017-07-30T08:19:51Z</time>
      </trkpt>
      <trkpt lat="42.60422" lon="-0.13909">
        <ele>1283.5</ele>
        <time>2017-07-30T08:19:53Z</time>
      </trkpt>
      <trkpt lat="42.60422" lon="-0.13914">
        <ele>1284</ele>
        <time>2017-07-30T08:19:55Z</time>
      </trkpt>
      <trkpt lat="42.60421" lon="-0.13918">
        <ele>1284.4</ele>
        <time>2017-07-30T08:19:57Z</time>
      </trkpt>
      <trkpt lat="42.60421" lon="-0.13922">
        <ele>1284.8</ele>
        <time>2017-07-30T08:19:59Z</time>
      </trkpt>
      <trkpt lat="42.60421" lon="-0.13926">
        <ele>1284.9</ele>
        <time>2017-07-30T08:20:01Z</time>
      </trkpt>
      <trkpt lat="42.60421" lon="-0.13929">
        <ele>1285.3</ele>
        <time>2017-07-30T08:20:03Z</time>
      </trkpt>
      <trkpt lat="42.60421" lon="-0.13933">
        <ele>1285.8</ele>
        <time>2017-07-30T08:20:05Z</time>
      </trkpt>
      <trkpt lat="42.60421" lon="-0.13937">
        <ele>1286.2</ele>
        <time>2017-07-30T08:20:07Z</time>
      </trkpt>
      <trkpt lat="42.60421" lon="-0.13941">
        <ele>1286.5</ele>
        <time>2017-07-30T08:20:09Z</time>
      </trkpt>
      <trkpt lat="42.60421" lon="-0.13945">
        <ele>1286.7</ele>
        <time>2017-07-30T08:20:11Z</time>
      </trkpt>
      <trkpt lat="42.60421" lon="-0.13949">
        <ele>1286.9</ele>
        <time>2017-07-30T08:20:13Z</time>
      </trkpt>
      <trkpt lat="42.60421" lon="-0.13954">
        <ele>1285.6</ele>
        <time>2017-07-30T08:20:16Z</time>
      </trkpt>
      <trkpt lat="42.60421" lon="-0.13958">
        <ele>1286</ele>
        <time>2017-07-30T08:20:19Z</time>
      </trkpt>
      <trkpt lat="42.6042" lon="-0.13964">
        <ele>1286.5</ele>
        <time>2017-07-30T08:20:22Z</time>
      </trkpt>
      <trkpt lat="42.6042" lon="-0.13968">
        <ele>1287</ele>
        <time>2017-07-30T08:20:24Z</time>
      </trkpt>
      <trkpt lat="42.6042" lon="-0.13971">
        <ele>1287.7</ele>
        <time>2017-07-30T08:20:26Z</time>
      </trkpt>
      <trkpt lat="42.6042" lon="-0.13976">
        <ele>1288.5</ele>
        <time>2017-07-30T08:20:29Z</time>
      </trkpt>
      <trkpt lat="42.60418" lon="-0.13981">
        <ele>1289.5</ele>
        <time>2017-07-30T08:20:32Z</time>
      </trkpt>
      <trkpt lat="42.60417" lon="-0.13986">
        <ele>1290.8</ele>
        <time>2017-07-30T08:20:35Z</time>
      </trkpt>
      <trkpt lat="42.60416" lon="-0.1399">
        <ele>1290.9</ele>
        <time>2017-07-30T08:20:37Z</time>
      </trkpt>
      <trkpt lat="42.60415" lon="-0.13995">
        <ele>1293.8</ele>
        <time>2017-07-30T08:20:40Z</time>
      </trkpt>
      <trkpt lat="42.60414" lon="-0.13999">
        <ele>1294</ele>
        <time>2017-07-30T08:20:42Z</time>
      </trkpt>
      <trkpt lat="42.60412" lon="-0.14002">
        <ele>1294</ele>
        <time>2017-07-30T08:20:44Z</time>
      </trkpt>
      <trkpt lat="42.6041" lon="-0.14005">
        <ele>1294.1</ele>
        <time>2017-07-30T08:20:46Z</time>
      </trkpt>
      <trkpt lat="42.60409" lon="-0.14009">
        <ele>1295.3</ele>
        <time>2017-07-30T08:20:48Z</time>
      </trkpt>
      <trkpt lat="42.60407" lon="-0.14012">
        <ele>1295.3</ele>
        <time>2017-07-30T08:20:50Z</time>
      </trkpt>
      <trkpt lat="42.60405" lon="-0.14017">
        <ele>1295.1</ele>
        <time>2017-07-30T08:20:53Z</time>
      </trkpt>
      <trkpt lat="42.60403" lon="-0.1402">
        <ele>1295.2</ele>
        <time>2017-07-30T08:20:55Z</time>
      </trkpt>
      <trkpt lat="42.60401" lon="-0.14022">
        <ele>1294.9</ele>
        <time>2017-07-30T08:20:57Z</time>
      </trkpt>
      <trkpt lat="42.60399" lon="-0.14025">
        <ele>1294.6</ele>
        <time>2017-07-30T08:20:59Z</time>
      </trkpt>
      <trkpt lat="42.60397" lon="-0.14028">
        <ele>1294.7</ele>
        <time>2017-07-30T08:21:01Z</time>
      </trkpt>
      <trkpt lat="42.60395" lon="-0.14031">
        <ele>1294.4</ele>
        <time>2017-07-30T08:21:03Z</time>
      </trkpt>
      <trkpt lat="42.60393" lon="-0.14035">
        <ele>1294.9</ele>
        <time>2017-07-30T08:21:05Z</time>
      </trkpt>
      <trkpt lat="42.60392" lon="-0.14038">
        <ele>1294.4</ele>
        <time>2017-07-30T08:21:07Z</time>
      </trkpt>
      <trkpt lat="42.60391" lon="-0.14043">
        <ele>1295.2</ele>
        <time>2017-07-30T08:21:09Z</time>
      </trkpt>
      <trkpt lat="42.60391" lon="-0.14047">
        <ele>1296</ele>
        <time>2017-07-30T08:21:11Z</time>
      </trkpt>
      <trkpt lat="42.6039" lon="-0.14051">
        <ele>1296.9</ele>
        <time>2017-07-30T08:21:13Z</time>
      </trkpt>
      <trkpt lat="42.6039" lon="-0.14056">
        <ele>1297.8</ele>
        <time>2017-07-30T08:21:15Z</time>
      </trkpt>
      <trkpt lat="42.60391" lon="-0.1406">
        <ele>1298.7</ele>
        <time>2017-07-30T08:21:17Z</time>
      </trkpt>
      <trkpt lat="42.60393" lon="-0.14064">
        <ele>1299.8</ele>
        <time>2017-07-30T08:21:19Z</time>
      </trkpt>
      <trkpt lat="42.60395" lon="-0.14068">
        <ele>1301.1</ele>
        <time>2017-07-30T08:21:21Z</time>
      </trkpt>
      <trkpt lat="42.60396" lon="-0.14072">
        <ele>1302.2</ele>
        <time>2017-07-30T08:21:23Z</time>
      </trkpt>
      <trkpt lat="42.60398" lon="-0.14076">
        <ele>1303.1</ele>
        <time>2017-07-30T08:21:25Z</time>
      </trkpt>
      <trkpt lat="42.604" lon="-0.1408">
        <ele>1304</ele>
        <time>2017-07-30T08:21:27Z</time>
      </trkpt>
      <trkpt lat="42.60402" lon="-0.14083">
        <ele>1304.4</ele>
        <time>2017-07-30T08:21:29Z</time>
      </trkpt>
      <trkpt lat="42.60404" lon="-0.14087">
        <ele>1304.8</ele>
        <time>2017-07-30T08:21:31Z</time>
      </trkpt>
      <trkpt lat="42.60406" lon="-0.14091">
        <ele>1304.7</ele>
        <time>2017-07-30T08:21:33Z</time>
      </trkpt>
      <trkpt lat="42.60407" lon="-0.14094">
        <ele>1304.4</ele>
        <time>2017-07-30T08:21:35Z</time>
      </trkpt>
      <trkpt lat="42.6041" lon="-0.14098">
        <ele>1304</ele>
        <time>2017-07-30T08:21:38Z</time>
      </trkpt>
      <trkpt lat="42.60412" lon="-0.14102">
        <ele>1303.7</ele>
        <time>2017-07-30T08:21:41Z</time>
      </trkpt>
      <trkpt lat="42.60415" lon="-0.14106">
        <ele>1303.3</ele>
        <time>2017-07-30T08:21:44Z</time>
      </trkpt>
      <trkpt lat="42.60417" lon="-0.14109">
        <ele>1303.1</ele>
        <time>2017-07-30T08:21:46Z</time>
      </trkpt>
      <trkpt lat="42.60419" lon="-0.14112">
        <ele>1302.8</ele>
        <time>2017-07-30T08:21:48Z</time>
      </trkpt>
      <trkpt lat="42.6042" lon="-0.14116">
        <ele>1303.2</ele>
        <time>2017-07-30T08:21:50Z</time>
      </trkpt>
      <trkpt lat="42.60421" lon="-0.1412">
        <ele>1303.9</ele>
        <time>2017-07-30T08:21:52Z</time>
      </trkpt>
      <trkpt lat="42.60422" lon="-0.14124">
        <ele>1304.5</ele>
        <time>2017-07-30T08:21:54Z</time>
      </trkpt>
      <trkpt lat="42.60424" lon="-0.14128">
        <ele>1304.6</ele>
        <time>2017-07-30T08:21:56Z</time>
      </trkpt>
      <trkpt lat="42.60426" lon="-0.14131">
        <ele>1304.7</ele>
        <time>2017-07-30T08:21:58Z</time>
      </trkpt>
      <trkpt lat="42.60427" lon="-0.14134">
        <ele>1304.9</ele>
        <time>2017-07-30T08:22:00Z</time>
      </trkpt>
      <trkpt lat="42.60429" lon="-0.14137">
        <ele>1305</ele>
        <time>2017-07-30T08:22:02Z</time>
      </trkpt>
      <trkpt lat="42.60431" lon="-0.1414">
        <ele>1305.2</ele>
        <time>2017-07-30T08:22:04Z</time>
      </trkpt>
      <trkpt lat="42.60433" lon="-0.14144">
        <ele>1305.3</ele>
        <time>2017-07-30T08:22:06Z</time>
      </trkpt>
      <trkpt lat="42.60435" lon="-0.14147">
        <ele>1305.5</ele>
        <time>2017-07-30T08:22:08Z</time>
      </trkpt>
      <trkpt lat="42.60437" lon="-0.1415">
        <ele>1305.7</ele>
        <time>2017-07-30T08:22:10Z</time>
      </trkpt>
      <trkpt lat="42.60439" lon="-0.14153">
        <ele>1305.9</ele>
        <time>2017-07-30T08:22:12Z</time>
      </trkpt>
      <trkpt lat="42.60441" lon="-0.14156">
        <ele>1306.2</ele>
        <time>2017-07-30T08:22:14Z</time>
      </trkpt>
      <trkpt lat="42.60443" lon="-0.14159">
        <ele>1306.4</ele>
        <time>2017-07-30T08:22:16Z</time>
      </trkpt>
      <trkpt lat="42.60445" lon="-0.14162">
        <ele>1306.6</ele>
        <time>2017-07-30T08:22:18Z</time>
      </trkpt>
      <trkpt lat="42.60447" lon="-0.14165">
        <ele>1306.9</ele>
        <time>2017-07-30T08:22:20Z</time>
      </trkpt>
      <trkpt lat="42.60449" lon="-0.14169">
        <ele>1307</ele>
        <time>2017-07-30T08:22:22Z</time>
      </trkpt>
      <trkpt lat="42.6045" lon="-0.14172">
        <ele>1307.1</ele>
        <time>2017-07-30T08:22:24Z</time>
      </trkpt>
      <trkpt lat="42.60451" lon="-0.14176">
        <ele>1307.2</ele>
        <time>2017-07-30T08:22:26Z</time>
      </trkpt>
      <trkpt lat="42.60452" lon="-0.1418">
        <ele>1307.2</ele>
        <time>2017-07-30T08:22:28Z</time>
      </trkpt>
      <trkpt lat="42.60453" lon="-0.14184">
        <ele>1307.4</ele>
        <time>2017-07-30T08:22:30Z</time>
      </trkpt>
      <trkpt lat="42.60455" lon="-0.14187">
        <ele>1307.5</ele>
        <time>2017-07-30T08:22:32Z</time>
      </trkpt>
      <trkpt lat="42.60457" lon="-0.14191">
        <ele>1307.6</ele>
        <time>2017-07-30T08:22:34Z</time>
      </trkpt>
      <trkpt lat="42.60458" lon="-0.14194">
        <ele>1307.6</ele>
        <time>2017-07-30T08:22:36Z</time>
      </trkpt>
      <trkpt lat="42.60459" lon="-0.14198">
        <ele>1307.6</ele>
        <time>2017-07-30T08:22:38Z</time>
      </trkpt>
      <trkpt lat="42.6046" lon="-0.14202">
        <ele>1307.7</ele>
        <time>2017-07-30T08:22:40Z</time>
      </trkpt>
      <trkpt lat="42.60461" lon="-0.14206">
        <ele>1307.8</ele>
        <time>2017-07-30T08:22:42Z</time>
      </trkpt>
      <trkpt lat="42.60462" lon="-0.1421">
        <ele>1307.9</ele>
        <time>2017-07-30T08:22:44Z</time>
      </trkpt>
      <trkpt lat="42.60462" lon="-0.14214">
        <ele>1308</ele>
        <time>2017-07-30T08:22:46Z</time>
      </trkpt>
      <trkpt lat="42.60463" lon="-0.14218">
        <ele>1308.1</ele>
        <time>2017-07-30T08:22:48Z</time>
      </trkpt>
      <trkpt lat="42.60464" lon="-0.14222">
        <ele>1308.1</ele>
        <time>2017-07-30T08:22:50Z</time>
      </trkpt>
      <trkpt lat="42.60464" lon="-0.14226">
        <ele>1308.2</ele>
        <time>2017-07-30T08:22:52Z</time>
      </trkpt>
      <trkpt lat="42.60465" lon="-0.1423">
        <ele>1308.3</ele>
        <time>2017-07-30T08:22:54Z</time>
      </trkpt>
      <trkpt lat="42.60466" lon="-0.14234">
        <ele>1308.4</ele>
        <time>2017-07-30T08:22:56Z</time>
      </trkpt>
      <trkpt lat="42.60466" lon="-0.14238">
        <ele>1308.5</ele>
        <time>2017-07-30T08:22:58Z</time>
      </trkpt>
      <trkpt lat="42.60467" lon="-0.14242">
        <ele>1308.6</ele>
        <time>2017-07-30T08:23:00Z</time>
      </trkpt>
      <trkpt lat="42.60468" lon="-0.14247">
        <ele>1308.6</ele>
        <time>2017-07-30T08:23:02Z</time>
      </trkpt>
      <trkpt lat="42.60468" lon="-0.14252">
        <ele>1308.7</ele>
        <time>2017-07-30T08:23:04Z</time>
      </trkpt>
      <trkpt lat="42.60468" lon="-0.14256">
        <ele>1308.7</ele>
        <time>2017-07-30T08:23:06Z</time>
      </trkpt>
      <trkpt lat="42.60468" lon="-0.1426">
        <ele>1308.7</ele>
        <time>2017-07-30T08:23:08Z</time>
      </trkpt>
      <trkpt lat="42.60468" lon="-0.14264">
        <ele>1308.8</ele>
        <time>2017-07-30T08:23:10Z</time>
      </trkpt>
      <trkpt lat="42.60468" lon="-0.14267">
        <ele>1309</ele>
        <time>2017-07-30T08:23:12Z</time>
      </trkpt>
      <trkpt lat="42.60469" lon="-0.14271">
        <ele>1309.2</ele>
        <time>2017-07-30T08:23:14Z</time>
      </trkpt>
      <trkpt lat="42.60469" lon="-0.14277">
        <ele>1309.3</ele>
        <time>2017-07-30T08:23:17Z</time>
      </trkpt>
      <trkpt lat="42.60469" lon="-0.14281">
        <ele>1309.5</ele>
        <time>2017-07-30T08:23:20Z</time>
      </trkpt>
      <trkpt lat="42.6047" lon="-0.14287">
        <ele>1309.8</ele>
        <time>2017-07-30T08:23:23Z</time>
      </trkpt>
      <trkpt lat="42.6047" lon="-0.14292">
        <ele>1310.1</ele>
        <time>2017-07-30T08:23:26Z</time>
      </trkpt>
      <trkpt lat="42.6047" lon="-0.14297">
        <ele>1310.6</ele>
        <time>2017-07-30T08:23:29Z</time>
      </trkpt>
      <trkpt lat="42.60469" lon="-0.14302">
        <ele>1311.2</ele>
        <time>2017-07-30T08:23:32Z</time>
      </trkpt>
      <trkpt lat="42.60468" lon="-0.14307">
        <ele>1312.5</ele>
        <time>2017-07-30T08:23:35Z</time>
      </trkpt>
      <trkpt lat="42.60468" lon="-0.14312">
        <ele>1313.7</ele>
        <time>2017-07-30T08:23:38Z</time>
      </trkpt>
      <trkpt lat="42.60467" lon="-0.14317">
        <ele>1314.9</ele>
        <time>2017-07-30T08:23:41Z</time>
      </trkpt>
      <trkpt lat="42.60466" lon="-0.14323">
        <ele>1316</ele>
        <time>2017-07-30T08:23:44Z</time>
      </trkpt>
      <trkpt lat="42.60464" lon="-0.14327">
        <ele>1316</ele>
        <time>2017-07-30T08:23:47Z</time>
      </trkpt>
      <trkpt lat="42.60462" lon="-0.14332">
        <ele>1316.5</ele>
        <time>2017-07-30T08:23:50Z</time>
      </trkpt>
      <trkpt lat="42.60461" lon="-0.14336">
        <ele>1317.2</ele>
        <time>2017-07-30T08:23:52Z</time>
      </trkpt>
      <trkpt lat="42.60461" lon="-0.1434">
        <ele>1317.9</ele>
        <time>2017-07-30T08:23:54Z</time>
      </trkpt>
      <trkpt lat="42.60459" lon="-0.14345">
        <ele>1318.5</ele>
        <time>2017-07-30T08:23:57Z</time>
      </trkpt>
      <trkpt lat="42.60458" lon="-0.14348">
        <ele>1318.9</ele>
        <time>2017-07-30T08:23:59Z</time>
      </trkpt>
      <trkpt lat="42.60456" lon="-0.14351">
        <ele>1319.3</ele>
        <time>2017-07-30T08:24:01Z</time>
      </trkpt>
      <trkpt lat="42.60454" lon="-0.14354">
        <ele>1319.8</ele>
        <time>2017-07-30T08:24:03Z</time>
      </trkpt>
      <trkpt lat="42.60453" lon="-0.14357">
        <ele>1320.2</ele>
        <time>2017-07-30T08:24:05Z</time>
      </trkpt>
      <trkpt lat="42.60451" lon="-0.1436">
        <ele>1320.8</ele>
        <time>2017-07-30T08:24:07Z</time>
      </trkpt>
      <trkpt lat="42.6045" lon="-0.14363">
        <ele>1321.5</ele>
        <time>2017-07-30T08:24:09Z</time>
      </trkpt>
      <trkpt lat="42.60448" lon="-0.14367">
        <ele>1322.2</ele>
        <time>2017-07-30T08:24:11Z</time>
      </trkpt>
      <trkpt lat="42.60447" lon="-0.1437">
        <ele>1323.2</ele>
        <time>2017-07-30T08:24:13Z</time>
      </trkpt>
      <trkpt lat="42.60446" lon="-0.14374">
        <ele>1324.3</ele>
        <time>2017-07-30T08:24:15Z</time>
      </trkpt>
      <trkpt lat="42.60445" lon="-0.14377">
        <ele>1325.2</ele>
        <time>2017-07-30T08:24:17Z</time>
      </trkpt>
      <trkpt lat="42.60444" lon="-0.14381">
        <ele>1325.9</ele>
        <time>2017-07-30T08:24:19Z</time>
      </trkpt>
      <trkpt lat="42.60442" lon="-0.14384">
        <ele>1326</ele>
        <time>2017-07-30T08:24:21Z</time>
      </trkpt>
      <trkpt lat="42.60441" lon="-0.14387">
        <ele>1326.8</ele>
        <time>2017-07-30T08:24:23Z</time>
      </trkpt>
      <trkpt lat="42.6044" lon="-0.14391">
        <ele>1327.2</ele>
        <time>2017-07-30T08:24:25Z</time>
      </trkpt>
      <trkpt lat="42.60438" lon="-0.14395">
        <ele>1328.5</ele>
        <time>2017-07-30T08:24:28Z</time>
      </trkpt>
      <trkpt lat="42.60437" lon="-0.14399">
        <ele>1330</ele>
        <time>2017-07-30T08:24:30Z</time>
      </trkpt>
      <trkpt lat="42.60436" lon="-0.14402">
        <ele>1329.4</ele>
        <time>2017-07-30T08:24:32Z</time>
      </trkpt>
      <trkpt lat="42.60435" lon="-0.14406">
        <ele>1331</ele>
        <time>2017-07-30T08:24:34Z</time>
      </trkpt>
      <trkpt lat="42.60433" lon="-0.14409">
        <ele>1331.7</ele>
        <time>2017-07-30T08:24:36Z</time>
      </trkpt>
      <trkpt lat="42.60432" lon="-0.14414">
        <ele>1333</ele>
        <time>2017-07-30T08:24:39Z</time>
      </trkpt>
      <trkpt lat="42.6043" lon="-0.14419">
        <ele>1333</ele>
        <time>2017-07-30T08:24:42Z</time>
      </trkpt>
      <trkpt lat="42.60428" lon="-0.14423">
        <ele>1334</ele>
        <time>2017-07-30T08:24:45Z</time>
      </trkpt>
      <trkpt lat="42.60426" lon="-0.14427">
        <ele>1333.8</ele>
        <time>2017-07-30T08:24:47Z</time>
      </trkpt>
      <trkpt lat="42.60425" lon="-0.1443">
        <ele>1334.9</ele>
        <time>2017-07-30T08:24:49Z</time>
      </trkpt>
      <trkpt lat="42.60424" lon="-0.14434">
        <ele>1336</ele>
        <time>2017-07-30T08:24:51Z</time>
      </trkpt>
      <trkpt lat="42.60423" lon="-0.14439">
        <ele>1335.9</ele>
        <time>2017-07-30T08:24:54Z</time>
      </trkpt>
      <trkpt lat="42.60421" lon="-0.14443">
        <ele>1335.8</ele>
        <time>2017-07-30T08:24:57Z</time>
      </trkpt>
      <trkpt lat="42.60419" lon="-0.14446">
        <ele>1336.7</ele>
        <time>2017-07-30T08:24:59Z</time>
      </trkpt>
      <trkpt lat="42.60416" lon="-0.1445">
        <ele>1336.7</ele>
        <time>2017-07-30T08:25:02Z</time>
      </trkpt>
      <trkpt lat="42.60414" lon="-0.14453">
        <ele>1335.5</ele>
        <time>2017-07-30T08:25:05Z</time>
      </trkpt>
      <trkpt lat="42.60413" lon="-0.14458">
        <ele>1336.7</ele>
        <time>2017-07-30T08:25:08Z</time>
      </trkpt>
      <trkpt lat="42.60411" lon="-0.14462">
        <ele>1336.7</ele>
        <time>2017-07-30T08:25:11Z</time>
      </trkpt>
      <trkpt lat="42.6041" lon="-0.14467">
        <ele>1337.9</ele>
        <time>2017-07-30T08:25:14Z</time>
      </trkpt>
      <trkpt lat="42.60408" lon="-0.14471">
        <ele>1338.7</ele>
        <time>2017-07-30T08:25:17Z</time>
      </trkpt>
      <trkpt lat="42.60406" lon="-0.14476">
        <ele>1339.6</ele>
        <time>2017-07-30T08:25:20Z</time>
      </trkpt>
      <trkpt lat="42.60404" lon="-0.1448">
        <ele>1339.4</ele>
        <time>2017-07-30T08:25:23Z</time>
      </trkpt>
      <trkpt lat="42.60403" lon="-0.14484">
        <ele>1339.4</ele>
        <time>2017-07-30T08:25:25Z</time>
      </trkpt>
      <trkpt lat="42.60401" lon="-0.14487">
        <ele>1339.2</ele>
        <time>2017-07-30T08:25:27Z</time>
      </trkpt>
      <trkpt lat="42.604" lon="-0.14491">
        <ele>1340.2</ele>
        <time>2017-07-30T08:25:29Z</time>
      </trkpt>
      <trkpt lat="42.60399" lon="-0.14496">
        <ele>1340</ele>
        <time>2017-07-30T08:25:32Z</time>
      </trkpt>
      <trkpt lat="42.60398" lon="-0.14499">
        <ele>1340.9</ele>
        <time>2017-07-30T08:25:34Z</time>
      </trkpt>
      <trkpt lat="42.60397" lon="-0.14505">
        <ele>1341.9</ele>
        <time>2017-07-30T08:25:37Z</time>
      </trkpt>
      <trkpt lat="42.60396" lon="-0.1451">
        <ele>1344.3</ele>
        <time>2017-07-30T08:25:40Z</time>
      </trkpt>
      <trkpt lat="42.60395" lon="-0.14515">
        <ele>1344.4</ele>
        <time>2017-07-30T08:25:43Z</time>
      </trkpt>
      <trkpt lat="42.60395" lon="-0.1452">
        <ele>1345.6</ele>
        <time>2017-07-30T08:25:46Z</time>
      </trkpt>
      <trkpt lat="42.60394" lon="-0.14525">
        <ele>1346.7</ele>
        <time>2017-07-30T08:25:49Z</time>
      </trkpt>
      <trkpt lat="42.60394" lon="-0.1453">
        <ele>1347.6</ele>
        <time>2017-07-30T08:25:52Z</time>
      </trkpt>
      <trkpt lat="42.60393" lon="-0.14535">
        <ele>1348.4</ele>
        <time>2017-07-30T08:25:55Z</time>
      </trkpt>
      <trkpt lat="42.60392" lon="-0.1454">
        <ele>1348.9</ele>
        <time>2017-07-30T08:25:58Z</time>
      </trkpt>
      <trkpt lat="42.60392" lon="-0.14546">
        <ele>1349.7</ele>
        <time>2017-07-30T08:26:01Z</time>
      </trkpt>
      <trkpt lat="42.60392" lon="-0.14551">
        <ele>1350.4</ele>
        <time>2017-07-30T08:26:04Z</time>
      </trkpt>
      <trkpt lat="42.60391" lon="-0.14556">
        <ele>1351</ele>
        <time>2017-07-30T08:26:07Z</time>
      </trkpt>
      <trkpt lat="42.60391" lon="-0.1456">
        <ele>1351.7</ele>
        <time>2017-07-30T08:26:10Z</time>
      </trkpt>
      <trkpt lat="42.60392" lon="-0.14565">
        <ele>1352.4</ele>
        <time>2017-07-30T08:26:13Z</time>
      </trkpt>
      <trkpt lat="42.60391" lon="-0.1457">
        <ele>1353.2</ele>
        <time>2017-07-30T08:26:16Z</time>
      </trkpt>
      <trkpt lat="42.60391" lon="-0.14574">
        <ele>1354.6</ele>
        <time>2017-07-30T08:26:19Z</time>
      </trkpt>
      <trkpt lat="42.6039" lon="-0.14579">
        <ele>1355.1</ele>
        <time>2017-07-30T08:26:22Z</time>
      </trkpt>
      <trkpt lat="42.6039" lon="-0.14585">
        <ele>1355.4</ele>
        <time>2017-07-30T08:26:25Z</time>
      </trkpt>
      <trkpt lat="42.6039" lon="-0.14589">
        <ele>1355.7</ele>
        <time>2017-07-30T08:26:27Z</time>
      </trkpt>
      <trkpt lat="42.60389" lon="-0.14592">
        <ele>1354.8</ele>
        <time>2017-07-30T08:26:29Z</time>
      </trkpt>
      <trkpt lat="42.60388" lon="-0.14596">
        <ele>1355.1</ele>
        <time>2017-07-30T08:26:31Z</time>
      </trkpt>
      <trkpt lat="42.60388" lon="-0.146">
        <ele>1355.5</ele>
        <time>2017-07-30T08:26:33Z</time>
      </trkpt>
      <trkpt lat="42.60387" lon="-0.14604">
        <ele>1355.5</ele>
        <time>2017-07-30T08:26:35Z</time>
      </trkpt>
      <trkpt lat="42.60386" lon="-0.14609">
        <ele>1355.1</ele>
        <time>2017-07-30T08:26:38Z</time>
      </trkpt>
      <trkpt lat="42.60385" lon="-0.14614">
        <ele>1355.6</ele>
        <time>2017-07-30T08:26:41Z</time>
      </trkpt>
      <trkpt lat="42.60384" lon="-0.14618">
        <ele>1356.2</ele>
        <time>2017-07-30T08:26:43Z</time>
      </trkpt>
      <trkpt lat="42.60383" lon="-0.14623">
        <ele>1355.8</ele>
        <time>2017-07-30T08:26:46Z</time>
      </trkpt>
      <trkpt lat="42.60383" lon="-0.14627">
        <ele>1356.7</ele>
        <time>2017-07-30T08:26:48Z</time>
      </trkpt>
      <trkpt lat="42.60382" lon="-0.14631">
        <ele>1357.6</ele>
        <time>2017-07-30T08:26:50Z</time>
      </trkpt>
      <trkpt lat="42.60381" lon="-0.14634">
        <ele>1358.5</ele>
        <time>2017-07-30T08:26:52Z</time>
      </trkpt>
      <trkpt lat="42.6038" lon="-0.14638">
        <ele>1358.5</ele>
        <time>2017-07-30T08:26:54Z</time>
      </trkpt>
      <trkpt lat="42.60379" lon="-0.14642">
        <ele>1357.9</ele>
        <time>2017-07-30T08:26:56Z</time>
      </trkpt>
      <trkpt lat="42.60378" lon="-0.14646">
        <ele>1358.7</ele>
        <time>2017-07-30T08:26:58Z</time>
      </trkpt>
      <trkpt lat="42.60377" lon="-0.14649">
        <ele>1359.6</ele>
        <time>2017-07-30T08:27:00Z</time>
      </trkpt>
      <trkpt lat="42.60377" lon="-0.14655">
        <ele>1359.2</ele>
        <time>2017-07-30T08:27:03Z</time>
      </trkpt>
      <trkpt lat="42.60376" lon="-0.1466">
        <ele>1361.1</ele>
        <time>2017-07-30T08:27:06Z</time>
      </trkpt>
      <trkpt lat="42.60376" lon="-0.14664">
        <ele>1361.2</ele>
        <time>2017-07-30T08:27:08Z</time>
      </trkpt>
      <trkpt lat="42.60376" lon="-0.14668">
        <ele>1362</ele>
        <time>2017-07-30T08:27:10Z</time>
      </trkpt>
      <trkpt lat="42.60375" lon="-0.14673">
        <ele>1363.6</ele>
        <time>2017-07-30T08:27:13Z</time>
      </trkpt>
      <trkpt lat="42.60374" lon="-0.14678">
        <ele>1364.5</ele>
        <time>2017-07-30T08:27:16Z</time>
      </trkpt>
      <trkpt lat="42.60373" lon="-0.14683">
        <ele>1364.3</ele>
        <time>2017-07-30T08:27:19Z</time>
      </trkpt>
      <trkpt lat="42.60371" lon="-0.14687">
        <ele>1365.2</ele>
        <time>2017-07-30T08:27:21Z</time>
      </trkpt>
      <trkpt lat="42.6037" lon="-0.1469">
        <ele>1364.9</ele>
        <time>2017-07-30T08:27:23Z</time>
      </trkpt>
      <trkpt lat="42.60369" lon="-0.14694">
        <ele>1364.9</ele>
        <time>2017-07-30T08:27:25Z</time>
      </trkpt>
      <trkpt lat="42.60368" lon="-0.14698">
        <ele>1365.7</ele>
        <time>2017-07-30T08:27:27Z</time>
      </trkpt>
      <trkpt lat="42.60367" lon="-0.14701">
        <ele>1365.6</ele>
        <time>2017-07-30T08:27:29Z</time>
      </trkpt>
      <trkpt lat="42.60366" lon="-0.14705">
        <ele>1366.7</ele>
        <time>2017-07-30T08:27:31Z</time>
      </trkpt>
      <trkpt lat="42.60366" lon="-0.14709">
        <ele>1367.7</ele>
        <time>2017-07-30T08:27:33Z</time>
      </trkpt>
      <trkpt lat="42.60365" lon="-0.14713">
        <ele>1368.7</ele>
        <time>2017-07-30T08:27:35Z</time>
      </trkpt>
      <trkpt lat="42.60364" lon="-0.14717">
        <ele>1369.6</ele>
        <time>2017-07-30T08:27:37Z</time>
      </trkpt>
      <trkpt lat="42.60364" lon="-0.14721">
        <ele>1369.5</ele>
        <time>2017-07-30T08:27:39Z</time>
      </trkpt>
      <trkpt lat="42.60364" lon="-0.14724">
        <ele>1370.1</ele>
        <time>2017-07-30T08:27:41Z</time>
      </trkpt>
      <trkpt lat="42.60363" lon="-0.1473">
        <ele>1370.8</ele>
        <time>2017-07-30T08:27:44Z</time>
      </trkpt>
      <trkpt lat="42.60362" lon="-0.14733">
        <ele>1371.5</ele>
        <time>2017-07-30T08:27:46Z</time>
      </trkpt>
      <trkpt lat="42.60361" lon="-0.14737">
        <ele>1370.7</ele>
        <time>2017-07-30T08:27:48Z</time>
      </trkpt>
      <trkpt lat="42.60359" lon="-0.14742">
        <ele>1372</ele>
        <time>2017-07-30T08:27:51Z</time>
      </trkpt>
      <trkpt lat="42.60358" lon="-0.14747">
        <ele>1372.5</ele>
        <time>2017-07-30T08:27:54Z</time>
      </trkpt>
      <trkpt lat="42.60356" lon="-0.14751">
        <ele>1372.2</ele>
        <time>2017-07-30T08:27:57Z</time>
      </trkpt>
      <trkpt lat="42.60356" lon="-0.14756">
        <ele>1372.9</ele>
        <time>2017-07-30T08:28:00Z</time>
      </trkpt>
      <trkpt lat="42.60355" lon="-0.14761">
        <ele>1373.7</ele>
        <time>2017-07-30T08:28:03Z</time>
      </trkpt>
      <trkpt lat="42.60353" lon="-0.14766">
        <ele>1373.9</ele>
        <time>2017-07-30T08:28:06Z</time>
      </trkpt>
      <trkpt lat="42.60353" lon="-0.14771">
        <ele>1374.9</ele>
        <time>2017-07-30T08:28:09Z</time>
      </trkpt>
      <trkpt lat="42.60351" lon="-0.14776">
        <ele>1375</ele>
        <time>2017-07-30T08:28:12Z</time>
      </trkpt>
      <trkpt lat="42.6035" lon="-0.1478">
        <ele>1376.6</ele>
        <time>2017-07-30T08:28:15Z</time>
      </trkpt>
      <trkpt lat="42.60348" lon="-0.14784">
        <ele>1375.8</ele>
        <time>2017-07-30T08:28:17Z</time>
      </trkpt>
      <trkpt lat="42.60347" lon="-0.14787">
        <ele>1376.7</ele>
        <time>2017-07-30T08:28:19Z</time>
      </trkpt>
      <trkpt lat="42.60344" lon="-0.14791">
        <ele>1376.7</ele>
        <time>2017-07-30T08:28:22Z</time>
      </trkpt>
      <trkpt lat="42.60342" lon="-0.14796">
        <ele>1377.7</ele>
        <time>2017-07-30T08:28:25Z</time>
      </trkpt>
      <trkpt lat="42.60341" lon="-0.14801">
        <ele>1377.8</ele>
        <time>2017-07-30T08:28:28Z</time>
      </trkpt>
      <trkpt lat="42.6034" lon="-0.14804">
        <ele>1378.9</ele>
        <time>2017-07-30T08:28:30Z</time>
      </trkpt>
      <trkpt lat="42.60338" lon="-0.14807">
        <ele>1379.1</ele>
        <time>2017-07-30T08:28:32Z</time>
      </trkpt>
      <trkpt lat="42.60337" lon="-0.1481">
        <ele>1379.1</ele>
        <time>2017-07-30T08:28:34Z</time>
      </trkpt>
      <trkpt lat="42.60335" lon="-0.14813">
        <ele>1379.7</ele>
        <time>2017-07-30T08:28:36Z</time>
      </trkpt>
      <trkpt lat="42.60333" lon="-0.14817">
        <ele>1381.3</ele>
        <time>2017-07-30T08:28:38Z</time>
      </trkpt>
      <trkpt lat="42.60331" lon="-0.1482">
        <ele>1382.4</ele>
        <time>2017-07-30T08:28:40Z</time>
      </trkpt>
      <trkpt lat="42.60329" lon="-0.14824">
        <ele>1383.4</ele>
        <time>2017-07-30T08:28:42Z</time>
      </trkpt>
      <trkpt lat="42.60328" lon="-0.14827">
        <ele>1383.4</ele>
        <time>2017-07-30T08:28:44Z</time>
      </trkpt>
      <trkpt lat="42.60327" lon="-0.14831">
        <ele>1385</ele>
        <time>2017-07-30T08:28:46Z</time>
      </trkpt>
      <trkpt lat="42.60326" lon="-0.14835">
        <ele>1385.5</ele>
        <time>2017-07-30T08:28:49Z</time>
      </trkpt>
      <trkpt lat="42.60327" lon="-0.14838">
        <ele>1387.6</ele>
        <time>2017-07-30T08:28:51Z</time>
      </trkpt>
      <trkpt lat="42.60331" lon="-0.1484">
        <ele>1389.6</ele>
        <time>2017-07-30T08:28:53Z</time>
      </trkpt>
      <trkpt lat="42.60334" lon="-0.1484">
        <ele>1389</ele>
        <time>2017-07-30T08:28:55Z</time>
      </trkpt>
      <trkpt lat="42.60337" lon="-0.14837">
        <ele>1389.7</ele>
        <time>2017-07-30T08:28:57Z</time>
      </trkpt>
      <trkpt lat="42.6034" lon="-0.14833">
        <ele>1389.2</ele>
        <time>2017-07-30T08:28:59Z</time>
      </trkpt>
      <trkpt lat="42.60342" lon="-0.14829">
        <ele>1388</ele>
        <time>2017-07-30T08:29:01Z</time>
      </trkpt>
      <trkpt lat="42.60345" lon="-0.14826">
        <ele>1387.3</ele>
        <time>2017-07-30T08:29:03Z</time>
      </trkpt>
      <trkpt lat="42.60348" lon="-0.14821">
        <ele>1386.6</ele>
        <time>2017-07-30T08:29:05Z</time>
      </trkpt>
      <trkpt lat="42.60351" lon="-0.14817">
        <ele>1385.9</ele>
        <time>2017-07-30T08:29:07Z</time>
      </trkpt>
      <trkpt lat="42.60354" lon="-0.14812">
        <ele>1385.4</ele>
        <time>2017-07-30T08:29:09Z</time>
      </trkpt>
      <trkpt lat="42.60357" lon="-0.14808">
        <ele>1385.1</ele>
        <time>2017-07-30T08:29:11Z</time>
      </trkpt>
      <trkpt lat="42.6036" lon="-0.14803">
        <ele>1384.9</ele>
        <time>2017-07-30T08:29:13Z</time>
      </trkpt>
      <trkpt lat="42.60363" lon="-0.14799">
        <ele>1384.5</ele>
        <time>2017-07-30T08:29:15Z</time>
      </trkpt>
      <trkpt lat="42.60365" lon="-0.14796">
        <ele>1384.1</ele>
        <time>2017-07-30T08:29:17Z</time>
      </trkpt>
      <trkpt lat="42.60368" lon="-0.14792">
        <ele>1383.5</ele>
        <time>2017-07-30T08:29:19Z</time>
      </trkpt>
      <trkpt lat="42.60371" lon="-0.14788">
        <ele>1383.1</ele>
        <time>2017-07-30T08:29:21Z</time>
      </trkpt>
      <trkpt lat="42.60374" lon="-0.14784">
        <ele>1383</ele>
        <time>2017-07-30T08:29:23Z</time>
      </trkpt>
      <trkpt lat="42.60376" lon="-0.14781">
        <ele>1383</ele>
        <time>2017-07-30T08:29:25Z</time>
      </trkpt>
      <trkpt lat="42.60379" lon="-0.14776">
        <ele>1383.1</ele>
        <time>2017-07-30T08:29:27Z</time>
      </trkpt>
      <trkpt lat="42.60382" lon="-0.14771">
        <ele>1382.9</ele>
        <time>2017-07-30T08:29:29Z</time>
      </trkpt>
      <trkpt lat="42.60384" lon="-0.14767">
        <ele>1383.3</ele>
        <time>2017-07-30T08:29:31Z</time>
      </trkpt>
      <trkpt lat="42.60387" lon="-0.14763">
        <ele>1384.1</ele>
        <time>2017-07-30T08:29:33Z</time>
      </trkpt>
      <trkpt lat="42.6039" lon="-0.1476">
        <ele>1384.5</ele>
        <time>2017-07-30T08:29:35Z</time>
      </trkpt>
      <trkpt lat="42.60392" lon="-0.14755">
        <ele>1384.1</ele>
        <time>2017-07-30T08:29:37Z</time>
      </trkpt>
      <trkpt lat="42.60393" lon="-0.14751">
        <ele>1384.4</ele>
        <time>2017-07-30T08:29:39Z</time>
      </trkpt>
      <trkpt lat="42.60396" lon="-0.14747">
        <ele>1384</ele>
        <time>2017-07-30T08:29:41Z</time>
      </trkpt>
      <trkpt lat="42.60398" lon="-0.14743">
        <ele>1384.2</ele>
        <time>2017-07-30T08:29:43Z</time>
      </trkpt>
      <trkpt lat="42.604" lon="-0.1474">
        <ele>1384.2</ele>
        <time>2017-07-30T08:29:45Z</time>
      </trkpt>
      <trkpt lat="42.60402" lon="-0.14736">
        <ele>1384.1</ele>
        <time>2017-07-30T08:29:47Z</time>
      </trkpt>
      <trkpt lat="42.60404" lon="-0.14733">
        <ele>1383.7</ele>
        <time>2017-07-30T08:29:49Z</time>
      </trkpt>
      <trkpt lat="42.60406" lon="-0.14729">
        <ele>1383.4</ele>
        <time>2017-07-30T08:29:51Z</time>
      </trkpt>
      <trkpt lat="42.60407" lon="-0.14725">
        <ele>1383.1</ele>
        <time>2017-07-30T08:29:53Z</time>
      </trkpt>
      <trkpt lat="42.60409" lon="-0.14721">
        <ele>1382.8</ele>
        <time>2017-07-30T08:29:55Z</time>
      </trkpt>
      <trkpt lat="42.60411" lon="-0.14717">
        <ele>1382.4</ele>
        <time>2017-07-30T08:29:57Z</time>
      </trkpt>
      <trkpt lat="42.60413" lon="-0.14713">
        <ele>1381.8</ele>
        <time>2017-07-30T08:29:59Z</time>
      </trkpt>
      <trkpt lat="42.60415" lon="-0.14709">
        <ele>1381</ele>
        <time>2017-07-30T08:30:01Z</time>
      </trkpt>
      <trkpt lat="42.60418" lon="-0.14706">
        <ele>1380.2</ele>
        <time>2017-07-30T08:30:03Z</time>
      </trkpt>
      <trkpt lat="42.60422" lon="-0.14706">
        <ele>1379.6</ele>
        <time>2017-07-30T08:30:05Z</time>
      </trkpt>
      <trkpt lat="42.60425" lon="-0.14709">
        <ele>1379.9</ele>
        <time>2017-07-30T08:30:07Z</time>
      </trkpt>
      <trkpt lat="42.60428" lon="-0.14713">
        <ele>1380.5</ele>
        <time>2017-07-30T08:30:09Z</time>
      </trkpt>
      <trkpt lat="42.60429" lon="-0.14717">
        <ele>1381.2</ele>
        <time>2017-07-30T08:30:11Z</time>
      </trkpt>
      <trkpt lat="42.60429" lon="-0.14721">
        <ele>1381.8</ele>
        <time>2017-07-30T08:30:13Z</time>
      </trkpt>
      <trkpt lat="42.60428" lon="-0.14725">
        <ele>1382.4</ele>
        <time>2017-07-30T08:30:15Z</time>
      </trkpt>
      <trkpt lat="42.60426" lon="-0.14729">
        <ele>1382.8</ele>
        <time>2017-07-30T08:30:17Z</time>
      </trkpt>
      <trkpt lat="42.60424" lon="-0.14732">
        <ele>1383.1</ele>
        <time>2017-07-30T08:30:19Z</time>
      </trkpt>
      <trkpt lat="42.60421" lon="-0.14735">
        <ele>1383.4</ele>
        <time>2017-07-30T08:30:21Z</time>
      </trkpt>
      <trkpt lat="42.60418" lon="-0.14738">
        <ele>1383.8</ele>
        <time>2017-07-30T08:30:23Z</time>
      </trkpt>
      <trkpt lat="42.60415" lon="-0.14741">
        <ele>1384.2</ele>
        <time>2017-07-30T08:30:25Z</time>
      </trkpt>
      <trkpt lat="42.60413" lon="-0.14745">
        <ele>1384.5</ele>
        <time>2017-07-30T08:30:27Z</time>
      </trkpt>
      <trkpt lat="42.60411" lon="-0.14749">
        <ele>1384.7</ele>
        <time>2017-07-30T08:30:29Z</time>
      </trkpt>
      <trkpt lat="42.60409" lon="-0.14754">
        <ele>1385</ele>
        <time>2017-07-30T08:30:31Z</time>
      </trkpt>
      <trkpt lat="42.60407" lon="-0.14759">
        <ele>1385.6</ele>
        <time>2017-07-30T08:30:33Z</time>
      </trkpt>
      <trkpt lat="42.60406" lon="-0.14765">
        <ele>1386.3</ele>
        <time>2017-07-30T08:30:35Z</time>
      </trkpt>
      <trkpt lat="42.60405" lon="-0.14771">
        <ele>1387.5</ele>
        <time>2017-07-30T08:30:37Z</time>
      </trkpt>
      <trkpt lat="42.60404" lon="-0.14776">
        <ele>1388.5</ele>
        <time>2017-07-30T08:30:39Z</time>
      </trkpt>
      <trkpt lat="42.60402" lon="-0.14781">
        <ele>1389.3</ele>
        <time>2017-07-30T08:30:41Z</time>
      </trkpt>
      <trkpt lat="42.60401" lon="-0.14785">
        <ele>1390</ele>
        <time>2017-07-30T08:30:43Z</time>
      </trkpt>
      <trkpt lat="42.60401" lon="-0.14789">
        <ele>1390.9</ele>
        <time>2017-07-30T08:30:45Z</time>
      </trkpt>
      <trkpt lat="42.604" lon="-0.14794">
        <ele>1392</ele>
        <time>2017-07-30T08:30:47Z</time>
      </trkpt>
      <trkpt lat="42.60399" lon="-0.14798">
        <ele>1392.5</ele>
        <time>2017-07-30T08:30:49Z</time>
      </trkpt>
      <trkpt lat="42.60398" lon="-0.14803">
        <ele>1393.8</ele>
        <time>2017-07-30T08:30:51Z</time>
      </trkpt>
      <trkpt lat="42.60397" lon="-0.14807">
        <ele>1395</ele>
        <time>2017-07-30T08:30:53Z</time>
      </trkpt>
      <trkpt lat="42.60395" lon="-0.14811">
        <ele>1395.3</ele>
        <time>2017-07-30T08:30:55Z</time>
      </trkpt>
      <trkpt lat="42.60394" lon="-0.14816">
        <ele>1396.7</ele>
        <time>2017-07-30T08:30:57Z</time>
      </trkpt>
      <trkpt lat="42.60393" lon="-0.1482">
        <ele>1398.1</ele>
        <time>2017-07-30T08:30:59Z</time>
      </trkpt>
      <trkpt lat="42.60391" lon="-0.14824">
        <ele>1398.4</ele>
        <time>2017-07-30T08:31:01Z</time>
      </trkpt>
      <trkpt lat="42.6039" lon="-0.14828">
        <ele>1399.7</ele>
        <time>2017-07-30T08:31:03Z</time>
      </trkpt>
      <trkpt lat="42.60388" lon="-0.14833">
        <ele>1399.8</ele>
        <time>2017-07-30T08:31:05Z</time>
      </trkpt>
      <trkpt lat="42.60386" lon="-0.14837">
        <ele>1401</ele>
        <time>2017-07-30T08:31:07Z</time>
      </trkpt>
      <trkpt lat="42.60385" lon="-0.14841">
        <ele>1401.4</ele>
        <time>2017-07-30T08:31:09Z</time>
      </trkpt>
      <trkpt lat="42.60383" lon="-0.14845">
        <ele>1402.9</ele>
        <time>2017-07-30T08:31:11Z</time>
      </trkpt>
      <trkpt lat="42.60382" lon="-0.14849">
        <ele>1402.1</ele>
        <time>2017-07-30T08:31:13Z</time>
      </trkpt>
      <trkpt lat="42.6038" lon="-0.14852">
        <ele>1403.6</ele>
        <time>2017-07-30T08:31:15Z</time>
      </trkpt>
      <trkpt lat="42.60379" lon="-0.14856">
        <ele>1404.2</ele>
        <time>2017-07-30T08:31:17Z</time>
      </trkpt>
      <trkpt lat="42.60377" lon="-0.1486">
        <ele>1405.5</ele>
        <time>2017-07-30T08:31:19Z</time>
      </trkpt>
      <trkpt lat="42.60375" lon="-0.14864">
        <ele>1406.1</ele>
        <time>2017-07-30T08:31:21Z</time>
      </trkpt>
      <trkpt lat="42.60373" lon="-0.14867">
        <ele>1406.9</ele>
        <time>2017-07-30T08:31:23Z</time>
      </trkpt>
      <trkpt lat="42.6037" lon="-0.1487">
        <ele>1406.3</ele>
        <time>2017-07-30T08:31:25Z</time>
      </trkpt>
      <trkpt lat="42.60368" lon="-0.14873">
        <ele>1407.9</ele>
        <time>2017-07-30T08:31:27Z</time>
      </trkpt>
      <trkpt lat="42.60365" lon="-0.14876">
        <ele>1409.1</ele>
        <time>2017-07-30T08:31:29Z</time>
      </trkpt>
      <trkpt lat="42.60364" lon="-0.1488">
        <ele>1410.2</ele>
        <time>2017-07-30T08:31:31Z</time>
      </trkpt>
      <trkpt lat="42.60361" lon="-0.14883">
        <ele>1411.6</ele>
        <time>2017-07-30T08:31:33Z</time>
      </trkpt>
      <trkpt lat="42.60358" lon="-0.14886">
        <ele>1411.1</ele>
        <time>2017-07-30T08:31:35Z</time>
      </trkpt>
      <trkpt lat="42.60356" lon="-0.14889">
        <ele>1411.5</ele>
        <time>2017-07-30T08:31:37Z</time>
      </trkpt>
      <trkpt lat="42.60354" lon="-0.14892">
        <ele>1411.8</ele>
        <time>2017-07-30T08:31:39Z</time>
      </trkpt>
      <trkpt lat="42.60352" lon="-0.14895">
        <ele>1411.2</ele>
        <time>2017-07-30T08:31:41Z</time>
      </trkpt>
      <trkpt lat="42.60349" lon="-0.14898">
        <ele>1412.2</ele>
        <time>2017-07-30T08:31:43Z</time>
      </trkpt>
      <trkpt lat="42.60347" lon="-0.14901">
        <ele>1412.7</ele>
        <time>2017-07-30T08:31:45Z</time>
      </trkpt>
      <trkpt lat="42.60344" lon="-0.14904">
        <ele>1412.2</ele>
        <time>2017-07-30T08:31:48Z</time>
      </trkpt>
      <trkpt lat="42.60342" lon="-0.14908">
        <ele>1412.9</ele>
        <time>2017-07-30T08:31:51Z</time>
      </trkpt>
      <trkpt lat="42.6034" lon="-0.14911">
        <ele>1413.9</ele>
        <time>2017-07-30T08:31:53Z</time>
      </trkpt>
      <trkpt lat="42.60337" lon="-0.14915">
        <ele>1414.5</ele>
        <time>2017-07-30T08:31:56Z</time>
      </trkpt>
      <trkpt lat="42.60334" lon="-0.14918">
        <ele>1414.9</ele>
        <time>2017-07-30T08:31:59Z</time>
      </trkpt>
      <trkpt lat="42.60332" lon="-0.14921">
        <ele>1414.6</ele>
        <time>2017-07-30T08:32:02Z</time>
      </trkpt>
      <trkpt lat="42.6033" lon="-0.14924">
        <ele>1415.4</ele>
        <time>2017-07-30T08:32:04Z</time>
      </trkpt>
      <trkpt lat="42.60327" lon="-0.14927">
        <ele>1415.9</ele>
        <time>2017-07-30T08:32:06Z</time>
      </trkpt>
      <trkpt lat="42.60325" lon="-0.14928">
        <ele>1415.4</ele>
        <time>2017-07-30T08:32:08Z</time>
      </trkpt>
      <trkpt lat="42.60322" lon="-0.1493">
        <ele>1415.8</ele>
        <time>2017-07-30T08:32:10Z</time>
      </trkpt>
      <trkpt lat="42.60319" lon="-0.14933">
        <ele>1415.2</ele>
        <time>2017-07-30T08:32:12Z</time>
      </trkpt>
      <trkpt lat="42.60316" lon="-0.14936">
        <ele>1415.7</ele>
        <time>2017-07-30T08:32:14Z</time>
      </trkpt>
      <trkpt lat="42.60314" lon="-0.14938">
        <ele>1415.2</ele>
        <time>2017-07-30T08:32:16Z</time>
      </trkpt>
      <trkpt lat="42.60311" lon="-0.14941">
        <ele>1416.4</ele>
        <time>2017-07-30T08:32:18Z</time>
      </trkpt>
      <trkpt lat="42.60308" lon="-0.14944">
        <ele>1417.1</ele>
        <time>2017-07-30T08:32:20Z</time>
      </trkpt>
      <trkpt lat="42.60306" lon="-0.14947">
        <ele>1416.8</ele>
        <time>2017-07-30T08:32:22Z</time>
      </trkpt>
      <trkpt lat="42.60304" lon="-0.1495">
        <ele>1417.7</ele>
        <time>2017-07-30T08:32:24Z</time>
      </trkpt>
      <trkpt lat="42.60301" lon="-0.14952">
        <ele>1419.2</ele>
        <time>2017-07-30T08:32:26Z</time>
      </trkpt>
      <trkpt lat="42.60299" lon="-0.14954">
        <ele>1418.9</ele>
        <time>2017-07-30T08:32:28Z</time>
      </trkpt>
      <trkpt lat="42.60296" lon="-0.14957">
        <ele>1420</ele>
        <time>2017-07-30T08:32:30Z</time>
      </trkpt>
      <trkpt lat="42.60294" lon="-0.1496">
        <ele>1419.4</ele>
        <time>2017-07-30T08:32:32Z</time>
      </trkpt>
      <trkpt lat="42.60291" lon="-0.14962">
        <ele>1420.3</ele>
        <time>2017-07-30T08:32:34Z</time>
      </trkpt>
      <trkpt lat="42.60289" lon="-0.14965">
        <ele>1421.8</ele>
        <time>2017-07-30T08:32:36Z</time>
      </trkpt>
      <trkpt lat="42.60286" lon="-0.14968">
        <ele>1421.1</ele>
        <time>2017-07-30T08:32:39Z</time>
      </trkpt>
      <trkpt lat="42.60283" lon="-0.14971">
        <ele>1421.6</ele>
        <time>2017-07-30T08:32:41Z</time>
      </trkpt>
      <trkpt lat="42.60281" lon="-0.14973">
        <ele>1420.9</ele>
        <time>2017-07-30T08:32:43Z</time>
      </trkpt>
      <trkpt lat="42.60278" lon="-0.14974">
        <ele>1421.4</ele>
        <time>2017-07-30T08:32:45Z</time>
      </trkpt>
      <trkpt lat="42.60274" lon="-0.14977">
        <ele>1420.8</ele>
        <time>2017-07-30T08:32:48Z</time>
      </trkpt>
      <trkpt lat="42.60272" lon="-0.14979">
        <ele>1421.3</ele>
        <time>2017-07-30T08:32:50Z</time>
      </trkpt>
      <trkpt lat="42.60269" lon="-0.14981">
        <ele>1420.5</ele>
        <time>2017-07-30T08:32:52Z</time>
      </trkpt>
      <trkpt lat="42.60266" lon="-0.14983">
        <ele>1421.1</ele>
        <time>2017-07-30T08:32:54Z</time>
      </trkpt>
      <trkpt lat="42.60262" lon="-0.14984">
        <ele>1420.2</ele>
        <time>2017-07-30T08:32:56Z</time>
      </trkpt>
      <trkpt lat="42.60259" lon="-0.14986">
        <ele>1419.4</ele>
        <time>2017-07-30T08:32:58Z</time>
      </trkpt>
      <trkpt lat="42.60255" lon="-0.14988">
        <ele>1419.8</ele>
        <time>2017-07-30T08:33:00Z</time>
      </trkpt>
      <trkpt lat="42.60252" lon="-0.14989">
        <ele>1419</ele>
        <time>2017-07-30T08:33:02Z</time>
      </trkpt>
      <trkpt lat="42.60249" lon="-0.14992">
        <ele>1419.2</ele>
        <time>2017-07-30T08:33:04Z</time>
      </trkpt>
      <trkpt lat="42.60246" lon="-0.14995">
        <ele>1419</ele>
        <time>2017-07-30T08:33:06Z</time>
      </trkpt>
      <trkpt lat="42.60243" lon="-0.14998">
        <ele>1417.7</ele>
        <time>2017-07-30T08:33:08Z</time>
      </trkpt>
      <trkpt lat="42.6024" lon="-0.15002">
        <ele>1416.7</ele>
        <time>2017-07-30T08:33:10Z</time>
      </trkpt>
      <trkpt lat="42.60239" lon="-0.15007">
        <ele>1417</ele>
        <time>2017-07-30T08:33:12Z</time>
      </trkpt>
      <trkpt lat="42.60238" lon="-0.15011">
        <ele>1417.2</ele>
        <time>2017-07-30T08:33:14Z</time>
      </trkpt>
      <trkpt lat="42.60239" lon="-0.15015">
        <ele>1417.3</ele>
        <time>2017-07-30T08:33:16Z</time>
      </trkpt>
      <trkpt lat="42.6024" lon="-0.1502">
        <ele>1417.4</ele>
        <time>2017-07-30T08:33:18Z</time>
      </trkpt>
      <trkpt lat="42.6024" lon="-0.15024">
        <ele>1417.4</ele>
        <time>2017-07-30T08:33:20Z</time>
      </trkpt>
      <trkpt lat="42.60241" lon="-0.15029">
        <ele>1417.5</ele>
        <time>2017-07-30T08:33:22Z</time>
      </trkpt>
      <trkpt lat="42.60241" lon="-0.15033">
        <ele>1419.5</ele>
        <time>2017-07-30T08:33:24Z</time>
      </trkpt>
      <trkpt lat="42.60242" lon="-0.15037">
        <ele>1419.9</ele>
        <time>2017-07-30T08:33:26Z</time>
      </trkpt>
      <trkpt lat="42.60243" lon="-0.15041">
        <ele>1420.4</ele>
        <time>2017-07-30T08:33:28Z</time>
      </trkpt>
      <trkpt lat="42.60244" lon="-0.15044">
        <ele>1421</ele>
        <time>2017-07-30T08:33:30Z</time>
      </trkpt>
      <trkpt lat="42.60246" lon="-0.1505">
        <ele>1423.3</ele>
        <time>2017-07-30T08:33:33Z</time>
      </trkpt>
      <trkpt lat="42.60247" lon="-0.15054">
        <ele>1423.6</ele>
        <time>2017-07-30T08:33:35Z</time>
      </trkpt>
      <trkpt lat="42.60248" lon="-0.15059">
        <ele>1425.5</ele>
        <time>2017-07-30T08:33:37Z</time>
      </trkpt>
      <trkpt lat="42.60249" lon="-0.15062">
        <ele>1425.4</ele>
        <time>2017-07-30T08:33:39Z</time>
      </trkpt>
      <trkpt lat="42.6025" lon="-0.15066">
        <ele>1425.2</ele>
        <time>2017-07-30T08:33:41Z</time>
      </trkpt>
      <trkpt lat="42.60252" lon="-0.15069">
        <ele>1426.5</ele>
        <time>2017-07-30T08:33:43Z</time>
      </trkpt>
      <trkpt lat="42.60253" lon="-0.15073">
        <ele>1426.1</ele>
        <time>2017-07-30T08:33:45Z</time>
      </trkpt>
      <trkpt lat="42.60254" lon="-0.15078">
        <ele>1427.4</ele>
        <time>2017-07-30T08:33:48Z</time>
      </trkpt>
      <trkpt lat="42.60255" lon="-0.15081">
        <ele>1427</ele>
        <time>2017-07-30T08:33:50Z</time>
      </trkpt>
      <trkpt lat="42.60257" lon="-0.15084">
        <ele>1427</ele>
        <time>2017-07-30T08:33:52Z</time>
      </trkpt>
      <trkpt lat="42.60258" lon="-0.15088">
        <ele>1428.5</ele>
        <time>2017-07-30T08:33:54Z</time>
      </trkpt>
      <trkpt lat="42.60259" lon="-0.15093">
        <ele>1428.3</ele>
        <time>2017-07-30T08:33:57Z</time>
      </trkpt>
      <trkpt lat="42.60261" lon="-0.15098">
        <ele>1430.1</ele>
        <time>2017-07-30T08:34:00Z</time>
      </trkpt>
      <trkpt lat="42.60262" lon="-0.15103">
        <ele>1429.9</ele>
        <time>2017-07-30T08:34:03Z</time>
      </trkpt>
      <trkpt lat="42.60263" lon="-0.15107">
        <ele>1429.8</ele>
        <time>2017-07-30T08:34:06Z</time>
      </trkpt>
      <trkpt lat="42.60264" lon="-0.15112">
        <ele>1431.7</ele>
        <time>2017-07-30T08:34:09Z</time>
      </trkpt>
      <trkpt lat="42.60266" lon="-0.15115">
        <ele>1431.5</ele>
        <time>2017-07-30T08:34:11Z</time>
      </trkpt>
      <trkpt lat="42.60267" lon="-0.15119">
        <ele>1433.6</ele>
        <time>2017-07-30T08:34:13Z</time>
      </trkpt>
      <trkpt lat="42.60267" lon="-0.15123">
        <ele>1433.3</ele>
        <time>2017-07-30T08:34:15Z</time>
      </trkpt>
      <trkpt lat="42.60267" lon="-0.15128">
        <ele>1433.1</ele>
        <time>2017-07-30T08:34:18Z</time>
      </trkpt>
      <trkpt lat="42.60268" lon="-0.15132">
        <ele>1433</ele>
        <time>2017-07-30T08:34:21Z</time>
      </trkpt>
      <trkpt lat="42.60269" lon="-0.15137">
        <ele>1433.1</ele>
        <time>2017-07-30T08:34:24Z</time>
      </trkpt>
      <trkpt lat="42.60269" lon="-0.15141">
        <ele>1433.3</ele>
        <time>2017-07-30T08:34:26Z</time>
      </trkpt>
      <trkpt lat="42.6027" lon="-0.15145">
        <ele>1435.2</ele>
        <time>2017-07-30T08:34:28Z</time>
      </trkpt>
      <trkpt lat="42.60271" lon="-0.15149">
        <ele>1435.7</ele>
        <time>2017-07-30T08:34:31Z</time>
      </trkpt>
      <trkpt lat="42.60272" lon="-0.15154">
        <ele>1437</ele>
        <time>2017-07-30T08:34:34Z</time>
      </trkpt>
      <trkpt lat="42.60272" lon="-0.15159">
        <ele>1437.7</ele>
        <time>2017-07-30T08:34:37Z</time>
      </trkpt>
      <trkpt lat="42.60273" lon="-0.15165">
        <ele>1438.4</ele>
        <time>2017-07-30T08:34:40Z</time>
      </trkpt>
      <trkpt lat="42.60273" lon="-0.15168">
        <ele>1441.2</ele>
        <time>2017-07-30T08:34:42Z</time>
      </trkpt>
      <trkpt lat="42.60273" lon="-0.15172">
        <ele>1441.7</ele>
        <time>2017-07-30T08:34:44Z</time>
      </trkpt>
      <trkpt lat="42.60273" lon="-0.15177">
        <ele>1442.2</ele>
        <time>2017-07-30T08:34:47Z</time>
      </trkpt>
      <trkpt lat="42.60273" lon="-0.15182">
        <ele>1442.7</ele>
        <time>2017-07-30T08:34:50Z</time>
      </trkpt>
      <trkpt lat="42.60273" lon="-0.15188">
        <ele>1441.2</ele>
        <time>2017-07-30T08:34:53Z</time>
      </trkpt>
      <trkpt lat="42.60272" lon="-0.15192">
        <ele>1441.8</ele>
        <time>2017-07-30T08:34:55Z</time>
      </trkpt>
      <trkpt lat="42.60272" lon="-0.15197">
        <ele>1443.1</ele>
        <time>2017-07-30T08:34:58Z</time>
      </trkpt>
      <trkpt lat="42.60272" lon="-0.15202">
        <ele>1443.9</ele>
        <time>2017-07-30T08:35:01Z</time>
      </trkpt>
      <trkpt lat="42.60272" lon="-0.15208">
        <ele>1444.8</ele>
        <time>2017-07-30T08:35:04Z</time>
      </trkpt>
      <trkpt lat="42.60271" lon="-0.15213">
        <ele>1445.8</ele>
        <time>2017-07-30T08:35:07Z</time>
      </trkpt>
      <trkpt lat="42.6027" lon="-0.15216">
        <ele>1446.9</ele>
        <time>2017-07-30T08:35:09Z</time>
      </trkpt>
      <trkpt lat="42.60269" lon="-0.15221">
        <ele>1446</ele>
        <time>2017-07-30T08:35:12Z</time>
      </trkpt>
      <trkpt lat="42.60268" lon="-0.15225">
        <ele>1447</ele>
        <time>2017-07-30T08:35:14Z</time>
      </trkpt>
      <trkpt lat="42.60266" lon="-0.15228">
        <ele>1448.1</ele>
        <time>2017-07-30T08:35:16Z</time>
      </trkpt>
      <trkpt lat="42.60265" lon="-0.15232">
        <ele>1447.4</ele>
        <time>2017-07-30T08:35:18Z</time>
      </trkpt>
      <trkpt lat="42.60263" lon="-0.15235">
        <ele>1448.6</ele>
        <time>2017-07-30T08:35:20Z</time>
      </trkpt>
      <trkpt lat="42.60262" lon="-0.15239">
        <ele>1446.6</ele>
        <time>2017-07-30T08:35:22Z</time>
      </trkpt>
      <trkpt lat="42.6026" lon="-0.15242">
        <ele>1445.8</ele>
        <time>2017-07-30T08:35:24Z</time>
      </trkpt>
      <trkpt lat="42.60258" lon="-0.15245">
        <ele>1446.9</ele>
        <time>2017-07-30T08:35:26Z</time>
      </trkpt>
      <trkpt lat="42.60257" lon="-0.15249">
        <ele>1445.9</ele>
        <time>2017-07-30T08:35:28Z</time>
      </trkpt>
      <trkpt lat="42.60255" lon="-0.15252">
        <ele>1445.9</ele>
        <time>2017-07-30T08:35:30Z</time>
      </trkpt>
      <trkpt lat="42.60254" lon="-0.15256">
        <ele>1446.8</ele>
        <time>2017-07-30T08:35:32Z</time>
      </trkpt>
      <trkpt lat="42.60253" lon="-0.15259">
        <ele>1445.9</ele>
        <time>2017-07-30T08:35:34Z</time>
      </trkpt>
      <trkpt lat="42.60252" lon="-0.15263">
        <ele>1446.8</ele>
        <time>2017-07-30T08:35:36Z</time>
      </trkpt>
      <trkpt lat="42.60251" lon="-0.15267">
        <ele>1447.6</ele>
        <time>2017-07-30T08:35:38Z</time>
      </trkpt>
      <trkpt lat="42.6025" lon="-0.1527">
        <ele>1446.5</ele>
        <time>2017-07-30T08:35:40Z</time>
      </trkpt>
      <trkpt lat="42.60249" lon="-0.15275">
        <ele>1447</ele>
        <time>2017-07-30T08:35:43Z</time>
      </trkpt>
      <trkpt lat="42.60248" lon="-0.15279">
        <ele>1447.3</ele>
        <time>2017-07-30T08:35:45Z</time>
      </trkpt>
      <trkpt lat="42.60247" lon="-0.15283">
        <ele>1447.6</ele>
        <time>2017-07-30T08:35:47Z</time>
      </trkpt>
      <trkpt lat="42.60247" lon="-0.15288">
        <ele>1445.9</ele>
        <time>2017-07-30T08:35:50Z</time>
      </trkpt>
      <trkpt lat="42.60247" lon="-0.15294">
        <ele>1446.3</ele>
        <time>2017-07-30T08:35:53Z</time>
      </trkpt>
      <trkpt lat="42.60249" lon="-0.15297">
        <ele>1448.6</ele>
        <time>2017-07-30T08:35:55Z</time>
      </trkpt>
      <trkpt lat="42.60251" lon="-0.15299">
        <ele>1450.4</ele>
        <time>2017-07-30T08:35:57Z</time>
      </trkpt>
      <trkpt lat="42.60254" lon="-0.15299">
        <ele>1452.3</ele>
        <time>2017-07-30T08:35:59Z</time>
      </trkpt>
      <trkpt lat="42.60257" lon="-0.15297">
        <ele>1454.3</ele>
        <time>2017-07-30T08:36:01Z</time>
      </trkpt>
      <trkpt lat="42.60259" lon="-0.15293">
        <ele>1453.7</ele>
        <time>2017-07-30T08:36:03Z</time>
      </trkpt>
      <trkpt lat="42.6026" lon="-0.15288">
        <ele>1453.2</ele>
        <time>2017-07-30T08:36:05Z</time>
      </trkpt>
      <trkpt lat="42.6026" lon="-0.15283">
        <ele>1452.7</ele>
        <time>2017-07-30T08:36:07Z</time>
      </trkpt>
      <trkpt lat="42.60259" lon="-0.15278">
        <ele>1452.3</ele>
        <time>2017-07-30T08:36:09Z</time>
      </trkpt>
      <trkpt lat="42.6026" lon="-0.15273">
        <ele>1453.1</ele>
        <time>2017-07-30T08:36:11Z</time>
      </trkpt>
      <trkpt lat="42.60262" lon="-0.15269">
        <ele>1452.6</ele>
        <time>2017-07-30T08:36:13Z</time>
      </trkpt>
      <trkpt lat="42.60264" lon="-0.15265">
        <ele>1454</ele>
        <time>2017-07-30T08:36:15Z</time>
      </trkpt>
      <trkpt lat="42.60266" lon="-0.15262">
        <ele>1453.5</ele>
        <time>2017-07-30T08:36:17Z</time>
      </trkpt>
      <trkpt lat="42.60268" lon="-0.15258">
        <ele>1454.5</ele>
        <time>2017-07-30T08:36:19Z</time>
      </trkpt>
      <trkpt lat="42.6027" lon="-0.15254">
        <ele>1455.3</ele>
        <time>2017-07-30T08:36:21Z</time>
      </trkpt>
      <trkpt lat="42.60272" lon="-0.1525">
        <ele>1454.9</ele>
        <time>2017-07-30T08:36:24Z</time>
      </trkpt>
      <trkpt lat="42.60274" lon="-0.15247">
        <ele>1455.5</ele>
        <time>2017-07-30T08:36:26Z</time>
      </trkpt>
      <trkpt lat="42.60276" lon="-0.15245">
        <ele>1456.4</ele>
        <time>2017-07-30T08:36:28Z</time>
      </trkpt>
      <trkpt lat="42.60279" lon="-0.15243">
        <ele>1456.5</ele>
        <time>2017-07-30T08:36:31Z</time>
      </trkpt>
      <trkpt lat="42.60282" lon="-0.15239">
        <ele>1455.7</ele>
        <time>2017-07-30T08:36:34Z</time>
      </trkpt>
      <trkpt lat="42.60284" lon="-0.15236">
        <ele>1456.6</ele>
        <time>2017-07-30T08:36:36Z</time>
      </trkpt>
      <trkpt lat="42.60287" lon="-0.15233">
        <ele>1456.8</ele>
        <time>2017-07-30T08:36:39Z</time>
      </trkpt>
      <trkpt lat="42.60289" lon="-0.15228">
        <ele>1457.4</ele>
        <time>2017-07-30T08:36:42Z</time>
      </trkpt>
      <trkpt lat="42.60291" lon="-0.15225">
        <ele>1457.1</ele>
        <time>2017-07-30T08:36:44Z</time>
      </trkpt>
      <trkpt lat="42.60293" lon="-0.15222">
        <ele>1458.4</ele>
        <time>2017-07-30T08:36:46Z</time>
      </trkpt>
      <trkpt lat="42.60295" lon="-0.15218">
        <ele>1459.6</ele>
        <time>2017-07-30T08:36:49Z</time>
      </trkpt>
      <trkpt lat="42.60297" lon="-0.15215">
        <ele>1459.4</ele>
        <time>2017-07-30T08:36:51Z</time>
      </trkpt>
      <trkpt lat="42.60299" lon="-0.15211">
        <ele>1460.7</ele>
        <time>2017-07-30T08:36:54Z</time>
      </trkpt>
      <trkpt lat="42.603" lon="-0.15207">
        <ele>1460.5</ele>
        <time>2017-07-30T08:36:56Z</time>
      </trkpt>
      <trkpt lat="42.60301" lon="-0.15203">
        <ele>1460.4</ele>
        <time>2017-07-30T08:36:58Z</time>
      </trkpt>
      <trkpt lat="42.60302" lon="-0.15199">
        <ele>1461.8</ele>
        <time>2017-07-30T08:37:00Z</time>
      </trkpt>
      <trkpt lat="42.60302" lon="-0.15195">
        <ele>1461.9</ele>
        <time>2017-07-30T08:37:02Z</time>
      </trkpt>
      <trkpt lat="42.60303" lon="-0.15191">
        <ele>1461.9</ele>
        <time>2017-07-30T08:37:04Z</time>
      </trkpt>
      <trkpt lat="42.60305" lon="-0.15187">
        <ele>1463.5</ele>
        <time>2017-07-30T08:37:06Z</time>
      </trkpt>
      <trkpt lat="42.60305" lon="-0.15184">
        <ele>1463.5</ele>
        <time>2017-07-30T08:37:08Z</time>
      </trkpt>
      <trkpt lat="42.60306" lon="-0.1518">
        <ele>1463.5</ele>
        <time>2017-07-30T08:37:10Z</time>
      </trkpt>
      <trkpt lat="42.60307" lon="-0.15175">
        <ele>1463.4</ele>
        <time>2017-07-30T08:37:12Z</time>
      </trkpt>
      <trkpt lat="42.60307" lon="-0.15171">
        <ele>1463.4</ele>
        <time>2017-07-30T08:37:14Z</time>
      </trkpt>
      <trkpt lat="42.60308" lon="-0.15168">
        <ele>1465.1</ele>
        <time>2017-07-30T08:37:16Z</time>
      </trkpt>
      <trkpt lat="42.60308" lon="-0.15164">
        <ele>1465.2</ele>
        <time>2017-07-30T08:37:18Z</time>
      </trkpt>
      <trkpt lat="42.60309" lon="-0.1516">
        <ele>1465.3</ele>
        <time>2017-07-30T08:37:20Z</time>
      </trkpt>
      <trkpt lat="42.6031" lon="-0.15156">
        <ele>1465.3</ele>
        <time>2017-07-30T08:37:22Z</time>
      </trkpt>
      <trkpt lat="42.6031" lon="-0.15153">
        <ele>1465.2</ele>
        <time>2017-07-30T08:37:24Z</time>
      </trkpt>
      <trkpt lat="42.60311" lon="-0.15148">
        <ele>1466.7</ele>
        <time>2017-07-30T08:37:27Z</time>
      </trkpt>
      <trkpt lat="42.60311" lon="-0.15144">
        <ele>1466.4</ele>
        <time>2017-07-30T08:37:29Z</time>
      </trkpt>
      <trkpt lat="42.60311" lon="-0.15138">
        <ele>1466</ele>
        <time>2017-07-30T08:37:32Z</time>
      </trkpt>
      <trkpt lat="42.60312" lon="-0.15134">
        <ele>1465.5</ele>
        <time>2017-07-30T08:37:34Z</time>
      </trkpt>
      <trkpt lat="42.60313" lon="-0.1513">
        <ele>1464.9</ele>
        <time>2017-07-30T08:37:36Z</time>
      </trkpt>
      <trkpt lat="42.60314" lon="-0.15126">
        <ele>1465.7</ele>
        <time>2017-07-30T08:37:38Z</time>
      </trkpt>
      <trkpt lat="42.60315" lon="-0.15122">
        <ele>1465</ele>
        <time>2017-07-30T08:37:40Z</time>
      </trkpt>
      <trkpt lat="42.60316" lon="-0.15118">
        <ele>1464.2</ele>
        <time>2017-07-30T08:37:42Z</time>
      </trkpt>
      <trkpt lat="42.60317" lon="-0.15114">
        <ele>1465</ele>
        <time>2017-07-30T08:37:44Z</time>
      </trkpt>
      <trkpt lat="42.60318" lon="-0.15111">
        <ele>1465</ele>
        <time>2017-07-30T08:37:46Z</time>
      </trkpt>
      <trkpt lat="42.60319" lon="-0.15106">
        <ele>1463.7</ele>
        <time>2017-07-30T08:37:49Z</time>
      </trkpt>
      <trkpt lat="42.6032" lon="-0.15101">
        <ele>1463</ele>
        <time>2017-07-30T08:37:52Z</time>
      </trkpt>
      <trkpt lat="42.60322" lon="-0.15097">
        <ele>1463.4</ele>
        <time>2017-07-30T08:37:55Z</time>
      </trkpt>
      <trkpt lat="42.60323" lon="-0.15092">
        <ele>1462.5</ele>
        <time>2017-07-30T08:37:58Z</time>
      </trkpt>
      <trkpt lat="42.60325" lon="-0.15088">
        <ele>1462.5</ele>
        <time>2017-07-30T08:38:01Z</time>
      </trkpt>
      <trkpt lat="42.60327" lon="-0.15084">
        <ele>1462.4</ele>
        <time>2017-07-30T08:38:04Z</time>
      </trkpt>
      <trkpt lat="42.6033" lon="-0.15082">
        <ele>1463.1</ele>
        <time>2017-07-30T08:38:07Z</time>
      </trkpt>
      <trkpt lat="42.60333" lon="-0.15084">
        <ele>1463.6</ele>
        <time>2017-07-30T08:38:10Z</time>
      </trkpt>
      <trkpt lat="42.60333" lon="-0.15088">
        <ele>1464.3</ele>
        <time>2017-07-30T08:38:12Z</time>
      </trkpt>
      <trkpt lat="42.60332" lon="-0.15091">
        <ele>1465</ele>
        <time>2017-07-30T08:38:14Z</time>
      </trkpt>
      <trkpt lat="42.60331" lon="-0.15095">
        <ele>1465.6</ele>
        <time>2017-07-30T08:38:16Z</time>
      </trkpt>
      <trkpt lat="42.6033" lon="-0.15099">
        <ele>1466.1</ele>
        <time>2017-07-30T08:38:18Z</time>
      </trkpt>
      <trkpt lat="42.60329" lon="-0.15103">
        <ele>1466.9</ele>
        <time>2017-07-30T08:38:20Z</time>
      </trkpt>
      <trkpt lat="42.6033" lon="-0.15107">
        <ele>1467.8</ele>
        <time>2017-07-30T08:38:22Z</time>
      </trkpt>
      <trkpt lat="42.6033" lon="-0.15112">
        <ele>1468.8</ele>
        <time>2017-07-30T08:38:24Z</time>
      </trkpt>
      <trkpt lat="42.60329" lon="-0.15117">
        <ele>1469.4</ele>
        <time>2017-07-30T08:38:26Z</time>
      </trkpt>
      <trkpt lat="42.60329" lon="-0.15122">
        <ele>1470</ele>
        <time>2017-07-30T08:38:28Z</time>
      </trkpt>
      <trkpt lat="42.60329" lon="-0.15127">
        <ele>1470.5</ele>
        <time>2017-07-30T08:38:30Z</time>
      </trkpt>
      <trkpt lat="42.60329" lon="-0.15133">
        <ele>1470.9</ele>
        <time>2017-07-30T08:38:32Z</time>
      </trkpt>
      <trkpt lat="42.60328" lon="-0.15139">
        <ele>1471.4</ele>
        <time>2017-07-30T08:38:34Z</time>
      </trkpt>
      <trkpt lat="42.60328" lon="-0.15143">
        <ele>1471.7</ele>
        <time>2017-07-30T08:38:36Z</time>
      </trkpt>
      <trkpt lat="42.60329" lon="-0.15148">
        <ele>1472.1</ele>
        <time>2017-07-30T08:38:38Z</time>
      </trkpt>
      <trkpt lat="42.60329" lon="-0.15152">
        <ele>1472.6</ele>
        <time>2017-07-30T08:38:40Z</time>
      </trkpt>
      <trkpt lat="42.60329" lon="-0.15156">
        <ele>1473.1</ele>
        <time>2017-07-30T08:38:42Z</time>
      </trkpt>
      <trkpt lat="42.60329" lon="-0.1516">
        <ele>1473.2</ele>
        <time>2017-07-30T08:38:44Z</time>
      </trkpt>
      <trkpt lat="42.60329" lon="-0.15165">
        <ele>1473.2</ele>
        <time>2017-07-30T08:38:46Z</time>
      </trkpt>
      <trkpt lat="42.60329" lon="-0.15169">
        <ele>1473.2</ele>
        <time>2017-07-30T08:38:48Z</time>
      </trkpt>
      <trkpt lat="42.6033" lon="-0.15173">
        <ele>1473.2</ele>
        <time>2017-07-30T08:38:50Z</time>
      </trkpt>
      <trkpt lat="42.60331" lon="-0.15177">
        <ele>1473.1</ele>
        <time>2017-07-30T08:38:52Z</time>
      </trkpt>
      <trkpt lat="42.60331" lon="-0.15181">
        <ele>1473.1</ele>
        <time>2017-07-30T08:38:54Z</time>
      </trkpt>
      <trkpt lat="42.60331" lon="-0.15185">
        <ele>1473.1</ele>
        <time>2017-07-30T08:38:56Z</time>
      </trkpt>
      <trkpt lat="42.60331" lon="-0.1519">
        <ele>1473.1</ele>
        <time>2017-07-30T08:38:58Z</time>
      </trkpt>
      <trkpt lat="42.60331" lon="-0.15195">
        <ele>1473.3</ele>
        <time>2017-07-30T08:39:00Z</time>
      </trkpt>
      <trkpt lat="42.60331" lon="-0.152">
        <ele>1473.4</ele>
        <time>2017-07-30T08:39:02Z</time>
      </trkpt>
      <trkpt lat="42.60331" lon="-0.15204">
        <ele>1473.8</ele>
        <time>2017-07-30T08:39:04Z</time>
      </trkpt>
      <trkpt lat="42.6033" lon="-0.15208">
        <ele>1474.2</ele>
        <time>2017-07-30T08:39:06Z</time>
      </trkpt>
      <trkpt lat="42.6033" lon="-0.15212">
        <ele>1474.6</ele>
        <time>2017-07-30T08:39:08Z</time>
      </trkpt>
      <trkpt lat="42.6033" lon="-0.15216">
        <ele>1475.4</ele>
        <time>2017-07-30T08:39:10Z</time>
      </trkpt>
      <trkpt lat="42.60329" lon="-0.1522">
        <ele>1476.3</ele>
        <time>2017-07-30T08:39:12Z</time>
      </trkpt>
      <trkpt lat="42.60328" lon="-0.15224">
        <ele>1477.2</ele>
        <time>2017-07-30T08:39:14Z</time>
      </trkpt>
      <trkpt lat="42.60328" lon="-0.15229">
        <ele>1478.4</ele>
        <time>2017-07-30T08:39:16Z</time>
      </trkpt>
      <trkpt lat="42.60327" lon="-0.15233">
        <ele>1479.6</ele>
        <time>2017-07-30T08:39:18Z</time>
      </trkpt>
      <trkpt lat="42.60325" lon="-0.15237">
        <ele>1480.7</ele>
        <time>2017-07-30T08:39:20Z</time>
      </trkpt>
      <trkpt lat="42.60324" lon="-0.15241">
        <ele>1481.7</ele>
        <time>2017-07-30T08:39:22Z</time>
      </trkpt>
      <trkpt lat="42.60322" lon="-0.15245">
        <ele>1482.7</ele>
        <time>2017-07-30T08:39:24Z</time>
      </trkpt>
      <trkpt lat="42.60321" lon="-0.15249">
        <ele>1484.2</ele>
        <time>2017-07-30T08:39:26Z</time>
      </trkpt>
      <trkpt lat="42.60321" lon="-0.15254">
        <ele>1485.9</ele>
        <time>2017-07-30T08:39:28Z</time>
      </trkpt>
      <trkpt lat="42.60319" lon="-0.15258">
        <ele>1485.5</ele>
        <time>2017-07-30T08:39:30Z</time>
      </trkpt>
      <trkpt lat="42.60318" lon="-0.15262">
        <ele>1487.5</ele>
        <time>2017-07-30T08:39:32Z</time>
      </trkpt>
      <trkpt lat="42.60317" lon="-0.15266">
        <ele>1487.7</ele>
        <time>2017-07-30T08:39:34Z</time>
      </trkpt>
      <trkpt lat="42.60315" lon="-0.1527">
        <ele>1489.9</ele>
        <time>2017-07-30T08:39:36Z</time>
      </trkpt>
      <trkpt lat="42.60314" lon="-0.15273">
        <ele>1488</ele>
        <time>2017-07-30T08:39:38Z</time>
      </trkpt>
      <trkpt lat="42.60311" lon="-0.15277">
        <ele>1490.2</ele>
        <time>2017-07-30T08:39:40Z</time>
      </trkpt>
      <trkpt lat="42.6031" lon="-0.15281">
        <ele>1490.4</ele>
        <time>2017-07-30T08:39:42Z</time>
      </trkpt>
      <trkpt lat="42.60308" lon="-0.15285">
        <ele>1492.3</ele>
        <time>2017-07-30T08:39:44Z</time>
      </trkpt>
      <trkpt lat="42.60306" lon="-0.15289">
        <ele>1492.4</ele>
        <time>2017-07-30T08:39:46Z</time>
      </trkpt>
      <trkpt lat="42.60305" lon="-0.15294">
        <ele>1494.1</ele>
        <time>2017-07-30T08:39:48Z</time>
      </trkpt>
      <trkpt lat="42.60305" lon="-0.15299">
        <ele>1495.5</ele>
        <time>2017-07-30T08:39:50Z</time>
      </trkpt>
      <trkpt lat="42.60304" lon="-0.15303">
        <ele>1496.7</ele>
        <time>2017-07-30T08:39:52Z</time>
      </trkpt>
      <trkpt lat="42.60304" lon="-0.15307">
        <ele>1495.9</ele>
        <time>2017-07-30T08:39:54Z</time>
      </trkpt>
      <trkpt lat="42.60303" lon="-0.15311">
        <ele>1496.7</ele>
        <time>2017-07-30T08:39:56Z</time>
      </trkpt>
      <trkpt lat="42.60303" lon="-0.15315">
        <ele>1497.3</ele>
        <time>2017-07-30T08:39:58Z</time>
      </trkpt>
      <trkpt lat="42.60302" lon="-0.15319">
        <ele>1497.9</ele>
        <time>2017-07-30T08:40:00Z</time>
      </trkpt>
      <trkpt lat="42.60302" lon="-0.15323">
        <ele>1498.4</ele>
        <time>2017-07-30T08:40:02Z</time>
      </trkpt>
      <trkpt lat="42.60302" lon="-0.15327">
        <ele>1498.7</ele>
        <time>2017-07-30T08:40:04Z</time>
      </trkpt>
      <trkpt lat="42.60301" lon="-0.1533">
        <ele>1498.9</ele>
        <time>2017-07-30T08:40:06Z</time>
      </trkpt>
      <trkpt lat="42.60301" lon="-0.15334">
        <ele>1499.1</ele>
        <time>2017-07-30T08:40:08Z</time>
      </trkpt>
      <trkpt lat="42.60301" lon="-0.15339">
        <ele>1499.5</ele>
        <time>2017-07-30T08:40:10Z</time>
      </trkpt>
      <trkpt lat="42.60301" lon="-0.15343">
        <ele>1500</ele>
        <time>2017-07-30T08:40:12Z</time>
      </trkpt>
      <trkpt lat="42.603" lon="-0.15347">
        <ele>1499</ele>
        <time>2017-07-30T08:40:14Z</time>
      </trkpt>
      <trkpt lat="42.60299" lon="-0.15351">
        <ele>1499</ele>
        <time>2017-07-30T08:40:16Z</time>
      </trkpt>
      <trkpt lat="42.60299" lon="-0.15356">
        <ele>1500.1</ele>
        <time>2017-07-30T08:40:18Z</time>
      </trkpt>
      <trkpt lat="42.60298" lon="-0.1536">
        <ele>1500.5</ele>
        <time>2017-07-30T08:40:20Z</time>
      </trkpt>
      <trkpt lat="42.60298" lon="-0.15365">
        <ele>1500.8</ele>
        <time>2017-07-30T08:40:22Z</time>
      </trkpt>
      <trkpt lat="42.60298" lon="-0.1537">
        <ele>1499.5</ele>
        <time>2017-07-30T08:40:24Z</time>
      </trkpt>
      <trkpt lat="42.60297" lon="-0.15374">
        <ele>1500</ele>
        <time>2017-07-30T08:40:26Z</time>
      </trkpt>
      <trkpt lat="42.60296" lon="-0.15379">
        <ele>1500.6</ele>
        <time>2017-07-30T08:40:28Z</time>
      </trkpt>
      <trkpt lat="42.60295" lon="-0.15383">
        <ele>1501.2</ele>
        <time>2017-07-30T08:40:30Z</time>
      </trkpt>
      <trkpt lat="42.60295" lon="-0.15387">
        <ele>1500.2</ele>
        <time>2017-07-30T08:40:32Z</time>
      </trkpt>
      <trkpt lat="42.60294" lon="-0.15391">
        <ele>1500.9</ele>
        <time>2017-07-30T08:40:34Z</time>
      </trkpt>
      <trkpt lat="42.60292" lon="-0.15396">
        <ele>1501.8</ele>
        <time>2017-07-30T08:40:36Z</time>
      </trkpt>
      <trkpt lat="42.60291" lon="-0.154">
        <ele>1501.2</ele>
        <time>2017-07-30T08:40:38Z</time>
      </trkpt>
      <trkpt lat="42.60289" lon="-0.15405">
        <ele>1502.3</ele>
        <time>2017-07-30T08:40:40Z</time>
      </trkpt>
      <trkpt lat="42.60288" lon="-0.15409">
        <ele>1501.8</ele>
        <time>2017-07-30T08:40:42Z</time>
      </trkpt>
      <trkpt lat="42.60287" lon="-0.15413">
        <ele>1502.8</ele>
        <time>2017-07-30T08:40:44Z</time>
      </trkpt>
      <trkpt lat="42.60286" lon="-0.15417">
        <ele>1503.6</ele>
        <time>2017-07-30T08:40:46Z</time>
      </trkpt>
      <trkpt lat="42.60285" lon="-0.15421">
        <ele>1502.9</ele>
        <time>2017-07-30T08:40:48Z</time>
      </trkpt>
      <trkpt lat="42.60284" lon="-0.15426">
        <ele>1503.5</ele>
        <time>2017-07-30T08:40:50Z</time>
      </trkpt>
      <trkpt lat="42.60284" lon="-0.1543">
        <ele>1504.1</ele>
        <time>2017-07-30T08:40:52Z</time>
      </trkpt>
      <trkpt lat="42.60283" lon="-0.15435">
        <ele>1504.6</ele>
        <time>2017-07-30T08:40:54Z</time>
      </trkpt>
      <trkpt lat="42.60282" lon="-0.15439">
        <ele>1505</ele>
        <time>2017-07-30T08:40:56Z</time>
      </trkpt>
      <trkpt lat="42.60282" lon="-0.15443">
        <ele>1505.4</ele>
        <time>2017-07-30T08:40:58Z</time>
      </trkpt>
      <trkpt lat="42.60282" lon="-0.15447">
        <ele>1505.7</ele>
        <time>2017-07-30T08:41:00Z</time>
      </trkpt>
      <trkpt lat="42.60283" lon="-0.15451">
        <ele>1506.2</ele>
        <time>2017-07-30T08:41:02Z</time>
      </trkpt>
      <trkpt lat="42.60283" lon="-0.15455">
        <ele>1506.6</ele>
        <time>2017-07-30T08:41:04Z</time>
      </trkpt>
      <trkpt lat="42.60283" lon="-0.15459">
        <ele>1506.9</ele>
        <time>2017-07-30T08:41:06Z</time>
      </trkpt>
      <trkpt lat="42.60283" lon="-0.15464">
        <ele>1507.1</ele>
        <time>2017-07-30T08:41:08Z</time>
      </trkpt>
      <trkpt lat="42.60284" lon="-0.15469">
        <ele>1507.2</ele>
        <time>2017-07-30T08:41:10Z</time>
      </trkpt>
      <trkpt lat="42.60284" lon="-0.15474">
        <ele>1507.1</ele>
        <time>2017-07-30T08:41:12Z</time>
      </trkpt>
      <trkpt lat="42.60285" lon="-0.15478">
        <ele>1507.9</ele>
        <time>2017-07-30T08:41:14Z</time>
      </trkpt>
      <trkpt lat="42.60286" lon="-0.15483">
        <ele>1507.5</ele>
        <time>2017-07-30T08:41:16Z</time>
      </trkpt>
      <trkpt lat="42.60287" lon="-0.15489">
        <ele>1506.4</ele>
        <time>2017-07-30T08:41:18Z</time>
      </trkpt>
      <trkpt lat="42.60288" lon="-0.15494">
        <ele>1505.7</ele>
        <time>2017-07-30T08:41:20Z</time>
      </trkpt>
      <trkpt lat="42.60289" lon="-0.15499">
        <ele>1506.1</ele>
        <time>2017-07-30T08:41:22Z</time>
      </trkpt>
      <trkpt lat="42.60291" lon="-0.15504">
        <ele>1505.5</ele>
        <time>2017-07-30T08:41:24Z</time>
      </trkpt>
      <trkpt lat="42.60293" lon="-0.15508">
        <ele>1505.8</ele>
        <time>2017-07-30T08:41:26Z</time>
      </trkpt>
      <trkpt lat="42.60296" lon="-0.15513">
        <ele>1506</ele>
        <time>2017-07-30T08:41:28Z</time>
      </trkpt>
      <trkpt lat="42.60298" lon="-0.15517">
        <ele>1505.1</ele>
        <time>2017-07-30T08:41:30Z</time>
      </trkpt>
      <trkpt lat="42.603" lon="-0.15521">
        <ele>1505.2</ele>
        <time>2017-07-30T08:41:32Z</time>
      </trkpt>
      <trkpt lat="42.60303" lon="-0.15525">
        <ele>1505.2</ele>
        <time>2017-07-30T08:41:34Z</time>
      </trkpt>
      <trkpt lat="42.60306" lon="-0.15528">
        <ele>1505.3</ele>
        <time>2017-07-30T08:41:36Z</time>
      </trkpt>
      <trkpt lat="42.60309" lon="-0.15531">
        <ele>1506</ele>
        <time>2017-07-30T08:41:38Z</time>
      </trkpt>
      <trkpt lat="42.60312" lon="-0.15534">
        <ele>1505.9</ele>
        <time>2017-07-30T08:41:40Z</time>
      </trkpt>
      <trkpt lat="42.60314" lon="-0.15537">
        <ele>1505.7</ele>
        <time>2017-07-30T08:41:42Z</time>
      </trkpt>
      <trkpt lat="42.60317" lon="-0.15539">
        <ele>1506.4</ele>
        <time>2017-07-30T08:41:44Z</time>
      </trkpt>
      <trkpt lat="42.60321" lon="-0.15542">
        <ele>1506.1</ele>
        <time>2017-07-30T08:41:46Z</time>
      </trkpt>
      <trkpt lat="42.60323" lon="-0.15545">
        <ele>1505</ele>
        <time>2017-07-30T08:41:48Z</time>
      </trkpt>
      <trkpt lat="42.60326" lon="-0.15547">
        <ele>1505.8</ele>
        <time>2017-07-30T08:41:50Z</time>
      </trkpt>
      <trkpt lat="42.60329" lon="-0.15549">
        <ele>1505.6</ele>
        <time>2017-07-30T08:41:52Z</time>
      </trkpt>
      <trkpt lat="42.60332" lon="-0.15552">
        <ele>1506.6</ele>
        <time>2017-07-30T08:41:54Z</time>
      </trkpt>
      <trkpt lat="42.60334" lon="-0.15555">
        <ele>1506.8</ele>
        <time>2017-07-30T08:41:56Z</time>
      </trkpt>
      <trkpt lat="42.60337" lon="-0.15558">
        <ele>1507.3</ele>
        <time>2017-07-30T08:41:58Z</time>
      </trkpt>
      <trkpt lat="42.6034" lon="-0.15561">
        <ele>1508.6</ele>
        <time>2017-07-30T08:42:00Z</time>
      </trkpt>
      <trkpt lat="42.60342" lon="-0.15565">
        <ele>1509.2</ele>
        <time>2017-07-30T08:42:02Z</time>
      </trkpt>
      <trkpt lat="42.60345" lon="-0.15568">
        <ele>1508.1</ele>
        <time>2017-07-30T08:42:04Z</time>
      </trkpt>
      <trkpt lat="42.60348" lon="-0.15572">
        <ele>1507.2</ele>
        <time>2017-07-30T08:42:06Z</time>
      </trkpt>
      <trkpt lat="42.60351" lon="-0.15576">
        <ele>1506.9</ele>
        <time>2017-07-30T08:42:08Z</time>
      </trkpt>
      <trkpt lat="42.60354" lon="-0.1558">
        <ele>1506.6</ele>
        <time>2017-07-30T08:42:10Z</time>
      </trkpt>
      <trkpt lat="42.60357" lon="-0.15585">
        <ele>1506.3</ele>
        <time>2017-07-30T08:42:12Z</time>
      </trkpt>
      <trkpt lat="42.60359" lon="-0.15588">
        <ele>1506.1</ele>
        <time>2017-07-30T08:42:14Z</time>
      </trkpt>
      <trkpt lat="42.60362" lon="-0.15592">
        <ele>1505.9</ele>
        <time>2017-07-30T08:42:16Z</time>
      </trkpt>
      <trkpt lat="42.60364" lon="-0.15596">
        <ele>1506</ele>
        <time>2017-07-30T08:42:18Z</time>
      </trkpt>
      <trkpt lat="42.60366" lon="-0.15601">
        <ele>1506.2</ele>
        <time>2017-07-30T08:42:20Z</time>
      </trkpt>
      <trkpt lat="42.60368" lon="-0.15605">
        <ele>1506.3</ele>
        <time>2017-07-30T08:42:22Z</time>
      </trkpt>
      <trkpt lat="42.60371" lon="-0.1561">
        <ele>1506.6</ele>
        <time>2017-07-30T08:42:24Z</time>
      </trkpt>
      <trkpt lat="42.60373" lon="-0.15615">
        <ele>1506.9</ele>
        <time>2017-07-30T08:42:26Z</time>
      </trkpt>
      <trkpt lat="42.60375" lon="-0.1562">
        <ele>1507.3</ele>
        <time>2017-07-30T08:42:28Z</time>
      </trkpt>
      <trkpt lat="42.60376" lon="-0.15625">
        <ele>1507.8</ele>
        <time>2017-07-30T08:42:30Z</time>
      </trkpt>
      <trkpt lat="42.60377" lon="-0.15629">
        <ele>1508</ele>
        <time>2017-07-30T08:42:31Z</time>
      </trkpt>
      <trkpt lat="42.60377" lon="-0.15633">
        <ele>1508.3</ele>
        <time>2017-07-30T08:42:32Z</time>
      </trkpt>
      <trkpt lat="42.60377" lon="-0.15637">
        <ele>1508.7</ele>
        <time>2017-07-30T08:42:33Z</time>
      </trkpt>
      <trkpt lat="42.60376" lon="-0.15642">
        <ele>1509</ele>
        <time>2017-07-30T08:42:34Z</time>
      </trkpt>
      <trkpt lat="42.60376" lon="-0.15645">
        <ele>1509.6</ele>
        <time>2017-07-30T08:42:35Z</time>
      </trkpt>
      <trkpt lat="42.60377" lon="-0.15649">
        <ele>1510.3</ele>
        <time>2017-07-30T08:42:36Z</time>
      </trkpt>
      <trkpt lat="42.60377" lon="-0.15653">
        <ele>1510.9</ele>
        <time>2017-07-30T08:42:37Z</time>
      </trkpt>
      <trkpt lat="42.60378" lon="-0.1566">
        <ele>1511.9</ele>
        <time>2017-07-30T08:42:39Z</time>
      </trkpt>
      <trkpt lat="42.60379" lon="-0.15666">
        <ele>1513.2</ele>
        <time>2017-07-30T08:42:41Z</time>
      </trkpt>
      <trkpt lat="42.6038" lon="-0.15673">
        <ele>1514.7</ele>
        <time>2017-07-30T08:42:43Z</time>
      </trkpt>
      <trkpt lat="42.60381" lon="-0.15677">
        <ele>1515.1</ele>
        <time>2017-07-30T08:42:44Z</time>
      </trkpt>
      <trkpt lat="42.60381" lon="-0.15681">
        <ele>1515.6</ele>
        <time>2017-07-30T08:42:45Z</time>
      </trkpt>
      <trkpt lat="42.60382" lon="-0.15686">
        <ele>1515.9</ele>
        <time>2017-07-30T08:42:46Z</time>
      </trkpt>
      <trkpt lat="42.60382" lon="-0.1569">
        <ele>1516</ele>
        <time>2017-07-30T08:42:47Z</time>
      </trkpt>
      <trkpt lat="42.60382" lon="-0.15695">
        <ele>1516.2</ele>
        <time>2017-07-30T08:42:48Z</time>
      </trkpt>
      <trkpt lat="42.60382" lon="-0.15699">
        <ele>1516.4</ele>
        <time>2017-07-30T08:42:49Z</time>
      </trkpt>
      <trkpt lat="42.60383" lon="-0.15703">
        <ele>1516.6</ele>
        <time>2017-07-30T08:42:50Z</time>
      </trkpt>
      <trkpt lat="42.60383" lon="-0.15708">
        <ele>1516.7</ele>
        <time>2017-07-30T08:42:51Z</time>
      </trkpt>
      <trkpt lat="42.60384" lon="-0.15712">
        <ele>1516.4</ele>
        <time>2017-07-30T08:42:52Z</time>
      </trkpt>
      <trkpt lat="42.60384" lon="-0.15716">
        <ele>1516</ele>
        <time>2017-07-30T08:42:53Z</time>
      </trkpt>
      <trkpt lat="42.60384" lon="-0.1572">
        <ele>1515.7</ele>
        <time>2017-07-30T08:42:54Z</time>
      </trkpt>
      <trkpt lat="42.60384" lon="-0.15723">
        <ele>1515.4</ele>
        <time>2017-07-30T08:42:55Z</time>
      </trkpt>
      <trkpt lat="42.60384" lon="-0.1573">
        <ele>1515.1</ele>
        <time>2017-07-30T08:42:57Z</time>
      </trkpt>
      <trkpt lat="42.60385" lon="-0.15736">
        <ele>1515.5</ele>
        <time>2017-07-30T08:42:59Z</time>
      </trkpt>
      <trkpt lat="42.60386" lon="-0.15742">
        <ele>1515.8</ele>
        <time>2017-07-30T08:43:01Z</time>
      </trkpt>
      <trkpt lat="42.60386" lon="-0.15747">
        <ele>1515.9</ele>
        <time>2017-07-30T08:43:03Z</time>
      </trkpt>
      <trkpt lat="42.60387" lon="-0.15752">
        <ele>1515.9</ele>
        <time>2017-07-30T08:43:05Z</time>
      </trkpt>
      <trkpt lat="42.60388" lon="-0.15758">
        <ele>1516.3</ele>
        <time>2017-07-30T08:43:07Z</time>
      </trkpt>
      <trkpt lat="42.60389" lon="-0.15764">
        <ele>1516.7</ele>
        <time>2017-07-30T08:43:09Z</time>
      </trkpt>
      <trkpt lat="42.60389" lon="-0.1577">
        <ele>1517.5</ele>
        <time>2017-07-30T08:43:11Z</time>
      </trkpt>
      <trkpt lat="42.6039" lon="-0.15775">
        <ele>1518.3</ele>
        <time>2017-07-30T08:43:13Z</time>
      </trkpt>
      <trkpt lat="42.6039" lon="-0.15781">
        <ele>1518.5</ele>
        <time>2017-07-30T08:43:15Z</time>
      </trkpt>
      <trkpt lat="42.60391" lon="-0.15788">
        <ele>1518.7</ele>
        <time>2017-07-30T08:43:17Z</time>
      </trkpt>
      <trkpt lat="42.60391" lon="-0.15795">
        <ele>1519</ele>
        <time>2017-07-30T08:43:19Z</time>
      </trkpt>
      <trkpt lat="42.60392" lon="-0.15801">
        <ele>1519.5</ele>
        <time>2017-07-30T08:43:21Z</time>
      </trkpt>
      <trkpt lat="42.60393" lon="-0.15808">
        <ele>1520.2</ele>
        <time>2017-07-30T08:43:23Z</time>
      </trkpt>
      <trkpt lat="42.60393" lon="-0.15815">
        <ele>1520.9</ele>
        <time>2017-07-30T08:43:25Z</time>
      </trkpt>
      <trkpt lat="42.60393" lon="-0.15822">
        <ele>1521.5</ele>
        <time>2017-07-30T08:43:27Z</time>
      </trkpt>
      <trkpt lat="42.60394" lon="-0.15826">
        <ele>1521.8</ele>
        <time>2017-07-30T08:43:28Z</time>
      </trkpt>
      <trkpt lat="42.60394" lon="-0.1583">
        <ele>1522.1</ele>
        <time>2017-07-30T08:43:29Z</time>
      </trkpt>
      <trkpt lat="42.60395" lon="-0.15834">
        <ele>1522.3</ele>
        <time>2017-07-30T08:43:30Z</time>
      </trkpt>
      <trkpt lat="42.60395" lon="-0.15838">
        <ele>1522.6</ele>
        <time>2017-07-30T08:43:31Z</time>
      </trkpt>
      <trkpt lat="42.60395" lon="-0.15842">
        <ele>1523</ele>
        <time>2017-07-30T08:43:32Z</time>
      </trkpt>
      <trkpt lat="42.60395" lon="-0.15846">
        <ele>1523.5</ele>
        <time>2017-07-30T08:43:33Z</time>
      </trkpt>
      <trkpt lat="42.60395" lon="-0.15851">
        <ele>1524.1</ele>
        <time>2017-07-30T08:43:34Z</time>
      </trkpt>
      <trkpt lat="42.60395" lon="-0.15855">
        <ele>1524.4</ele>
        <time>2017-07-30T08:43:35Z</time>
      </trkpt>
      <trkpt lat="42.60396" lon="-0.15858">
        <ele>1524.7</ele>
        <time>2017-07-30T08:43:36Z</time>
      </trkpt>
      <trkpt lat="42.60396" lon="-0.15863">
        <ele>1525</ele>
        <time>2017-07-30T08:43:37Z</time>
      </trkpt>
      <trkpt lat="42.60396" lon="-0.15867">
        <ele>1525.4</ele>
        <time>2017-07-30T08:43:38Z</time>
      </trkpt>
      <trkpt lat="42.60396" lon="-0.15871">
        <ele>1525.8</ele>
        <time>2017-07-30T08:43:39Z</time>
      </trkpt>
      <trkpt lat="42.60396" lon="-0.15876">
        <ele>1526.2</ele>
        <time>2017-07-30T08:43:40Z</time>
      </trkpt>
      <trkpt lat="42.60396" lon="-0.1588">
        <ele>1526.5</ele>
        <time>2017-07-30T08:43:41Z</time>
      </trkpt>
      <trkpt lat="42.60396" lon="-0.15884">
        <ele>1526.8</ele>
        <time>2017-07-30T08:43:42Z</time>
      </trkpt>
      <trkpt lat="42.60396" lon="-0.15891">
        <ele>1527.1</ele>
        <time>2017-07-30T08:43:44Z</time>
      </trkpt>
      <trkpt lat="42.60396" lon="-0.15898">
        <ele>1527.3</ele>
        <time>2017-07-30T08:43:46Z</time>
      </trkpt>
      <trkpt lat="42.60396" lon="-0.15905">
        <ele>1527</ele>
        <time>2017-07-30T08:43:48Z</time>
      </trkpt>
      <trkpt lat="42.60396" lon="-0.15908">
        <ele>1526.7</ele>
        <time>2017-07-30T08:43:49Z</time>
      </trkpt>
      <trkpt lat="42.60396" lon="-0.15912">
        <ele>1526.3</ele>
        <time>2017-07-30T08:43:50Z</time>
      </trkpt>
      <trkpt lat="42.60395" lon="-0.15916">
        <ele>1526</ele>
        <time>2017-07-30T08:43:51Z</time>
      </trkpt>
      <trkpt lat="42.60394" lon="-0.1592">
        <ele>1525.6</ele>
        <time>2017-07-30T08:43:52Z</time>
      </trkpt>
      <trkpt lat="42.60393" lon="-0.15924">
        <ele>1525.3</ele>
        <time>2017-07-30T08:43:53Z</time>
      </trkpt>
      <trkpt lat="42.60392" lon="-0.15928">
        <ele>1525.5</ele>
        <time>2017-07-30T08:43:54Z</time>
      </trkpt>
      <trkpt lat="42.60391" lon="-0.15932">
        <ele>1525.7</ele>
        <time>2017-07-30T08:43:55Z</time>
      </trkpt>
      <trkpt lat="42.60391" lon="-0.15935">
        <ele>1525.8</ele>
        <time>2017-07-30T08:43:56Z</time>
      </trkpt>
      <trkpt lat="42.60389" lon="-0.15942">
        <ele>1525.5</ele>
        <time>2017-07-30T08:43:58Z</time>
      </trkpt>
      <trkpt lat="42.60388" lon="-0.15949">
        <ele>1525</ele>
        <time>2017-07-30T08:44:00Z</time>
      </trkpt>
      <trkpt lat="42.60386" lon="-0.15956">
        <ele>1524.5</ele>
        <time>2017-07-30T08:44:02Z</time>
      </trkpt>
      <trkpt lat="42.60385" lon="-0.15962">
        <ele>1524</ele>
        <time>2017-07-30T08:44:04Z</time>
      </trkpt>
      <trkpt lat="42.60384" lon="-0.15968">
        <ele>1523.7</ele>
        <time>2017-07-30T08:44:06Z</time>
      </trkpt>
      <trkpt lat="42.60382" lon="-0.15975">
        <ele>1524</ele>
        <time>2017-07-30T08:44:08Z</time>
      </trkpt>
      <trkpt lat="42.60381" lon="-0.15981">
        <ele>1524.5</ele>
        <time>2017-07-30T08:44:10Z</time>
      </trkpt>
      <trkpt lat="42.6038" lon="-0.15988">
        <ele>1524.8</ele>
        <time>2017-07-30T08:44:12Z</time>
      </trkpt>
      <trkpt lat="42.60378" lon="-0.15994">
        <ele>1525.2</ele>
        <time>2017-07-30T08:44:14Z</time>
      </trkpt>
      <trkpt lat="42.60377" lon="-0.16001">
        <ele>1525.8</ele>
        <time>2017-07-30T08:44:16Z</time>
      </trkpt>
      <trkpt lat="42.60377" lon="-0.16008">
        <ele>1525.7</ele>
        <time>2017-07-30T08:44:18Z</time>
      </trkpt>
      <trkpt lat="42.60377" lon="-0.16015">
        <ele>1526</ele>
        <time>2017-07-30T08:44:20Z</time>
      </trkpt>
      <trkpt lat="42.60377" lon="-0.16021">
        <ele>1527</ele>
        <time>2017-07-30T08:44:22Z</time>
      </trkpt>
      <trkpt lat="42.60378" lon="-0.16027">
        <ele>1527.3</ele>
        <time>2017-07-30T08:44:24Z</time>
      </trkpt>
      <trkpt lat="42.60379" lon="-0.16034">
        <ele>1527.5</ele>
        <time>2017-07-30T08:44:26Z</time>
      </trkpt>
      <trkpt lat="42.6038" lon="-0.16038">
        <ele>1527.9</ele>
        <time>2017-07-30T08:44:27Z</time>
      </trkpt>
      <trkpt lat="42.6038" lon="-0.16042">
        <ele>1528.2</ele>
        <time>2017-07-30T08:44:28Z</time>
      </trkpt>
      <trkpt lat="42.60381" lon="-0.16046">
        <ele>1528.2</ele>
        <time>2017-07-30T08:44:29Z</time>
      </trkpt>
      <trkpt lat="42.60382" lon="-0.1605">
        <ele>1528</ele>
        <time>2017-07-30T08:44:30Z</time>
      </trkpt>
      <trkpt lat="42.60383" lon="-0.16055">
        <ele>1527.7</ele>
        <time>2017-07-30T08:44:31Z</time>
      </trkpt>
      <trkpt lat="42.60384" lon="-0.1606">
        <ele>1527.9</ele>
        <time>2017-07-30T08:44:32Z</time>
      </trkpt>
      <trkpt lat="42.60385" lon="-0.16065">
        <ele>1528.1</ele>
        <time>2017-07-30T08:44:33Z</time>
      </trkpt>
      <trkpt lat="42.60387" lon="-0.16071">
        <ele>1527.8</ele>
        <time>2017-07-30T08:44:34Z</time>
      </trkpt>
      <trkpt lat="42.60389" lon="-0.16076">
        <ele>1527.6</ele>
        <time>2017-07-30T08:44:35Z</time>
      </trkpt>
      <trkpt lat="42.6039" lon="-0.16082">
        <ele>1527.5</ele>
        <time>2017-07-30T08:44:36Z</time>
      </trkpt>
      <trkpt lat="42.60392" lon="-0.16088">
        <ele>1527.6</ele>
        <time>2017-07-30T08:44:37Z</time>
      </trkpt>
      <trkpt lat="42.60394" lon="-0.16095">
        <ele>1527.6</ele>
        <time>2017-07-30T08:44:38Z</time>
      </trkpt>
      <trkpt lat="42.60397" lon="-0.16102">
        <ele>1527</ele>
        <time>2017-07-30T08:44:39Z</time>
      </trkpt>
      <trkpt lat="42.60399" lon="-0.16109">
        <ele>1526.8</ele>
        <time>2017-07-30T08:44:40Z</time>
      </trkpt>
      <trkpt lat="42.60402" lon="-0.16116">
        <ele>1526.7</ele>
        <time>2017-07-30T08:44:41Z</time>
      </trkpt>
      <trkpt lat="42.60404" lon="-0.16123">
        <ele>1526.5</ele>
        <time>2017-07-30T08:44:42Z</time>
      </trkpt>
      <trkpt lat="42.60407" lon="-0.16132">
        <ele>1526.1</ele>
        <time>2017-07-30T08:44:43Z</time>
      </trkpt>
      <trkpt lat="42.60409" lon="-0.1614">
        <ele>1525.1</ele>
        <time>2017-07-30T08:44:44Z</time>
      </trkpt>
      <trkpt lat="42.60411" lon="-0.1615">
        <ele>1524.8</ele>
        <time>2017-07-30T08:44:45Z</time>
      </trkpt>
      <trkpt lat="42.60412" lon="-0.1616">
        <ele>1523.8</ele>
        <time>2017-07-30T08:44:46Z</time>
      </trkpt>
      <trkpt lat="42.60412" lon="-0.1617">
        <ele>1523</ele>
        <time>2017-07-30T08:44:47Z</time>
      </trkpt>
      <trkpt lat="42.60412" lon="-0.1618">
        <ele>1522.5</ele>
        <time>2017-07-30T08:44:48Z</time>
      </trkpt>
      <trkpt lat="42.60412" lon="-0.1619">
        <ele>1521.9</ele>
        <time>2017-07-30T08:44:49Z</time>
      </trkpt>
      <trkpt lat="42.60411" lon="-0.162">
        <ele>1521.3</ele>
        <time>2017-07-30T08:44:50Z</time>
      </trkpt>
      <trkpt lat="42.6041" lon="-0.1621">
        <ele>1521</ele>
        <time>2017-07-30T08:44:51Z</time>
      </trkpt>
      <trkpt lat="42.6041" lon="-0.1622">
        <ele>1521</ele>
        <time>2017-07-30T08:44:52Z</time>
      </trkpt>
      <trkpt lat="42.60409" lon="-0.1623">
        <ele>1521.6</ele>
        <time>2017-07-30T08:44:53Z</time>
      </trkpt>
      <trkpt lat="42.60409" lon="-0.1624">
        <ele>1522.5</ele>
        <time>2017-07-30T08:44:54Z</time>
      </trkpt>
      <trkpt lat="42.60408" lon="-0.16249">
        <ele>1523.2</ele>
        <time>2017-07-30T08:44:55Z</time>
      </trkpt>
      <trkpt lat="42.60407" lon="-0.16257">
        <ele>1524.3</ele>
        <time>2017-07-30T08:44:56Z</time>
      </trkpt>
      <trkpt lat="42.60407" lon="-0.16265">
        <ele>1525.5</ele>
        <time>2017-07-30T08:44:57Z</time>
      </trkpt>
      <trkpt lat="42.60406" lon="-0.16272">
        <ele>1526.2</ele>
        <time>2017-07-30T08:44:58Z</time>
      </trkpt>
      <trkpt lat="42.60406" lon="-0.16278">
        <ele>1526.3</ele>
        <time>2017-07-30T08:44:59Z</time>
      </trkpt>
      <trkpt lat="42.60405" lon="-0.16283">
        <ele>1526.4</ele>
        <time>2017-07-30T08:45:00Z</time>
      </trkpt>
      <trkpt lat="42.60405" lon="-0.16288">
        <ele>1526.3</ele>
        <time>2017-07-30T08:45:01Z</time>
      </trkpt>
      <trkpt lat="42.60405" lon="-0.16293">
        <ele>1526.2</ele>
        <time>2017-07-30T08:45:02Z</time>
      </trkpt>
      <trkpt lat="42.60405" lon="-0.16297">
        <ele>1525.9</ele>
        <time>2017-07-30T08:45:03Z</time>
      </trkpt>
      <trkpt lat="42.60405" lon="-0.16301">
        <ele>1525.5</ele>
        <time>2017-07-30T08:45:04Z</time>
      </trkpt>
      <trkpt lat="42.60405" lon="-0.16309">
        <ele>1524.7</ele>
        <time>2017-07-30T08:45:06Z</time>
      </trkpt>
      <trkpt lat="42.60404" lon="-0.16313">
        <ele>1524.3</ele>
        <time>2017-07-30T08:45:07Z</time>
      </trkpt>
      <trkpt lat="42.60404" lon="-0.16317">
        <ele>1523.9</ele>
        <time>2017-07-30T08:45:08Z</time>
      </trkpt>
      <trkpt lat="42.60404" lon="-0.16321">
        <ele>1523.7</ele>
        <time>2017-07-30T08:45:09Z</time>
      </trkpt>
      <trkpt lat="42.60404" lon="-0.16325">
        <ele>1523.4</ele>
        <time>2017-07-30T08:45:10Z</time>
      </trkpt>
      <trkpt lat="42.60404" lon="-0.16329">
        <ele>1523.2</ele>
        <time>2017-07-30T08:45:11Z</time>
      </trkpt>
      <trkpt lat="42.60404" lon="-0.16333">
        <ele>1523</ele>
        <time>2017-07-30T08:45:12Z</time>
      </trkpt>
      <trkpt lat="42.60404" lon="-0.16339">
        <ele>1522.7</ele>
        <time>2017-07-30T08:45:14Z</time>
      </trkpt>
      <trkpt lat="42.60403" lon="-0.16346">
        <ele>1522.8</ele>
        <time>2017-07-30T08:45:16Z</time>
      </trkpt>
      <trkpt lat="42.60403" lon="-0.1635">
        <ele>1522.9</ele>
        <time>2017-07-30T08:45:17Z</time>
      </trkpt>
      <trkpt lat="42.60403" lon="-0.16354">
        <ele>1523.1</ele>
        <time>2017-07-30T08:45:18Z</time>
      </trkpt>
      <trkpt lat="42.60402" lon="-0.16358">
        <ele>1523.3</ele>
        <time>2017-07-30T08:45:19Z</time>
      </trkpt>
      <trkpt lat="42.60402" lon="-0.16361">
        <ele>1523.5</ele>
        <time>2017-07-30T08:45:20Z</time>
      </trkpt>
      <trkpt lat="42.60401" lon="-0.16365">
        <ele>1524</ele>
        <time>2017-07-30T08:45:21Z</time>
      </trkpt>
      <trkpt lat="42.60401" lon="-0.16369">
        <ele>1524.5</ele>
        <time>2017-07-30T08:45:22Z</time>
      </trkpt>
      <trkpt lat="42.604" lon="-0.16372">
        <ele>1525</ele>
        <time>2017-07-30T08:45:23Z</time>
      </trkpt>
      <trkpt lat="42.604" lon="-0.16376">
        <ele>1525.5</ele>
        <time>2017-07-30T08:45:24Z</time>
      </trkpt>
      <trkpt lat="42.60399" lon="-0.1638">
        <ele>1526</ele>
        <time>2017-07-30T08:45:25Z</time>
      </trkpt>
      <trkpt lat="42.60398" lon="-0.16387">
        <ele>1527</ele>
        <time>2017-07-30T08:45:27Z</time>
      </trkpt>
      <trkpt lat="42.60397" lon="-0.1639">
        <ele>1527.5</ele>
        <time>2017-07-30T08:45:28Z</time>
      </trkpt>
      <trkpt lat="42.60396" lon="-0.16394">
        <ele>1527.8</ele>
        <time>2017-07-30T08:45:29Z</time>
      </trkpt>
      <trkpt lat="42.60394" lon="-0.16398">
        <ele>1528.1</ele>
        <time>2017-07-30T08:45:30Z</time>
      </trkpt>
      <trkpt lat="42.60393" lon="-0.16401">
        <ele>1528.2</ele>
        <time>2017-07-30T08:45:31Z</time>
      </trkpt>
      <trkpt lat="42.60391" lon="-0.16404">
        <ele>1528.2</ele>
        <time>2017-07-30T08:45:32Z</time>
      </trkpt>
      <trkpt lat="42.60389" lon="-0.16408">
        <ele>1528.2</ele>
        <time>2017-07-30T08:45:33Z</time>
      </trkpt>
      <trkpt lat="42.60388" lon="-0.16411">
        <ele>1528.1</ele>
        <time>2017-07-30T08:45:34Z</time>
      </trkpt>
      <trkpt lat="42.60386" lon="-0.16415">
        <ele>1528</ele>
        <time>2017-07-30T08:45:35Z</time>
      </trkpt>
      <trkpt lat="42.60384" lon="-0.16419">
        <ele>1528</ele>
        <time>2017-07-30T08:45:36Z</time>
      </trkpt>
      <trkpt lat="42.60382" lon="-0.16423">
        <ele>1527.9</ele>
        <time>2017-07-30T08:45:37Z</time>
      </trkpt>
      <trkpt lat="42.60379" lon="-0.16427">
        <ele>1527.7</ele>
        <time>2017-07-30T08:45:38Z</time>
      </trkpt>
      <trkpt lat="42.60377" lon="-0.1643">
        <ele>1527.4</ele>
        <time>2017-07-30T08:45:39Z</time>
      </trkpt>
      <trkpt lat="42.60375" lon="-0.16433">
        <ele>1527.2</ele>
        <time>2017-07-30T08:45:40Z</time>
      </trkpt>
      <trkpt lat="42.60373" lon="-0.16437">
        <ele>1527</ele>
        <time>2017-07-30T08:45:41Z</time>
      </trkpt>
      <trkpt lat="42.60372" lon="-0.1644">
        <ele>1526.5</ele>
        <time>2017-07-30T08:45:42Z</time>
      </trkpt>
      <trkpt lat="42.6037" lon="-0.16444">
        <ele>1525.7</ele>
        <time>2017-07-30T08:45:43Z</time>
      </trkpt>
      <trkpt lat="42.60368" lon="-0.1645">
        <ele>1524.5</ele>
        <time>2017-07-30T08:45:45Z</time>
      </trkpt>
      <trkpt lat="42.60365" lon="-0.16455">
        <ele>1524.1</ele>
        <time>2017-07-30T08:45:47Z</time>
      </trkpt>
      <trkpt lat="42.60363" lon="-0.16461">
        <ele>1523.7</ele>
        <time>2017-07-30T08:45:49Z</time>
      </trkpt>
      <trkpt lat="42.60361" lon="-0.16467">
        <ele>1523.3</ele>
        <time>2017-07-30T08:45:51Z</time>
      </trkpt>
      <trkpt lat="42.6036" lon="-0.16473">
        <ele>1524.2</ele>
        <time>2017-07-30T08:45:53Z</time>
      </trkpt>
      <trkpt lat="42.60359" lon="-0.16477">
        <ele>1524.7</ele>
        <time>2017-07-30T08:45:54Z</time>
      </trkpt>
      <trkpt lat="42.60359" lon="-0.16481">
        <ele>1525.2</ele>
        <time>2017-07-30T08:45:55Z</time>
      </trkpt>
      <trkpt lat="42.60358" lon="-0.16486">
        <ele>1525.8</ele>
        <time>2017-07-30T08:45:56Z</time>
      </trkpt>
      <trkpt lat="42.60357" lon="-0.1649">
        <ele>1526.3</ele>
        <time>2017-07-30T08:45:57Z</time>
      </trkpt>
      <trkpt lat="42.60356" lon="-0.16495">
        <ele>1526.9</ele>
        <time>2017-07-30T08:45:58Z</time>
      </trkpt>
      <trkpt lat="42.60355" lon="-0.165">
        <ele>1527.5</ele>
        <time>2017-07-30T08:45:59Z</time>
      </trkpt>
      <trkpt lat="42.60354" lon="-0.16505">
        <ele>1528.1</ele>
        <time>2017-07-30T08:46:00Z</time>
      </trkpt>
      <trkpt lat="42.60353" lon="-0.1651">
        <ele>1528.6</ele>
        <time>2017-07-30T08:46:01Z</time>
      </trkpt>
      <trkpt lat="42.60353" lon="-0.16514">
        <ele>1529</ele>
        <time>2017-07-30T08:46:02Z</time>
      </trkpt>
      <trkpt lat="42.60351" lon="-0.16517">
        <ele>1529.4</ele>
        <time>2017-07-30T08:46:03Z</time>
      </trkpt>
      <trkpt lat="42.6035" lon="-0.16521">
        <ele>1529.7</ele>
        <time>2017-07-30T08:46:04Z</time>
      </trkpt>
      <trkpt lat="42.60349" lon="-0.16524">
        <ele>1530</ele>
        <time>2017-07-30T08:46:05Z</time>
      </trkpt>
      <trkpt lat="42.60347" lon="-0.16528">
        <ele>1530.1</ele>
        <time>2017-07-30T08:46:06Z</time>
      </trkpt>
      <trkpt lat="42.60345" lon="-0.16531">
        <ele>1530.1</ele>
        <time>2017-07-30T08:46:07Z</time>
      </trkpt>
      <trkpt lat="42.60344" lon="-0.16534">
        <ele>1530.2</ele>
        <time>2017-07-30T08:46:08Z</time>
      </trkpt>
      <trkpt lat="42.60342" lon="-0.16538">
        <ele>1530.3</ele>
        <time>2017-07-30T08:46:09Z</time>
      </trkpt>
      <trkpt lat="42.6034" lon="-0.16541">
        <ele>1530.4</ele>
        <time>2017-07-30T08:46:10Z</time>
      </trkpt>
      <trkpt lat="42.60338" lon="-0.16545">
        <ele>1530.6</ele>
        <time>2017-07-30T08:46:11Z</time>
      </trkpt>
      <trkpt lat="42.60337" lon="-0.16548">
        <ele>1530.9</ele>
        <time>2017-07-30T08:46:12Z</time>
      </trkpt>
      <trkpt lat="42.60336" lon="-0.16552">
        <ele>1531</ele>
        <time>2017-07-30T08:46:13Z</time>
      </trkpt>
      <trkpt lat="42.60335" lon="-0.16555">
        <ele>1531.2</ele>
        <time>2017-07-30T08:46:14Z</time>
      </trkpt>
      <trkpt lat="42.60334" lon="-0.16559">
        <ele>1531.3</ele>
        <time>2017-07-30T08:46:15Z</time>
      </trkpt>
      <trkpt lat="42.60332" lon="-0.16565">
        <ele>1531.4</ele>
        <time>2017-07-30T08:46:17Z</time>
      </trkpt>
      <trkpt lat="42.60332" lon="-0.1657">
        <ele>1531.7</ele>
        <time>2017-07-30T08:46:19Z</time>
      </trkpt>
      <trkpt lat="42.60332" lon="-0.16576">
        <ele>1532</ele>
        <time>2017-07-30T08:46:21Z</time>
      </trkpt>
      <trkpt lat="42.60332" lon="-0.16582">
        <ele>1532.3</ele>
        <time>2017-07-30T08:46:23Z</time>
      </trkpt>
      <trkpt lat="42.60331" lon="-0.16589">
        <ele>1532.6</ele>
        <time>2017-07-30T08:46:25Z</time>
      </trkpt>
      <trkpt lat="42.60331" lon="-0.16596">
        <ele>1532.4</ele>
        <time>2017-07-30T08:46:27Z</time>
      </trkpt>
      <trkpt lat="42.6033" lon="-0.16599">
        <ele>1532.1</ele>
        <time>2017-07-30T08:46:28Z</time>
      </trkpt>
      <trkpt lat="42.6033" lon="-0.16604">
        <ele>1531.8</ele>
        <time>2017-07-30T08:46:29Z</time>
      </trkpt>
      <trkpt lat="42.6033" lon="-0.16608">
        <ele>1531.4</ele>
        <time>2017-07-30T08:46:30Z</time>
      </trkpt>
      <trkpt lat="42.60329" lon="-0.16613">
        <ele>1531</ele>
        <time>2017-07-30T08:46:31Z</time>
      </trkpt>
      <trkpt lat="42.60329" lon="-0.16619">
        <ele>1530.6</ele>
        <time>2017-07-30T08:46:32Z</time>
      </trkpt>
      <trkpt lat="42.60328" lon="-0.16624">
        <ele>1530.2</ele>
        <time>2017-07-30T08:46:33Z</time>
      </trkpt>
      <trkpt lat="42.60327" lon="-0.16631">
        <ele>1529.7</ele>
        <time>2017-07-30T08:46:34Z</time>
      </trkpt>
      <trkpt lat="42.60326" lon="-0.16638">
        <ele>1529.2</ele>
        <time>2017-07-30T08:46:35Z</time>
      </trkpt>
      <trkpt lat="42.60325" lon="-0.16644">
        <ele>1528.7</ele>
        <time>2017-07-30T08:46:36Z</time>
      </trkpt>
      <trkpt lat="42.60324" lon="-0.16652">
        <ele>1528.2</ele>
        <time>2017-07-30T08:46:37Z</time>
      </trkpt>
      <trkpt lat="42.60322" lon="-0.16659">
        <ele>1527.1</ele>
        <time>2017-07-30T08:46:38Z</time>
      </trkpt>
      <trkpt lat="42.6032" lon="-0.16667">
        <ele>1525.4</ele>
        <time>2017-07-30T08:46:39Z</time>
      </trkpt>
      <trkpt lat="42.60318" lon="-0.16676">
        <ele>1523.6</ele>
        <time>2017-07-30T08:46:40Z</time>
      </trkpt>
      <trkpt lat="42.60316" lon="-0.16684">
        <ele>1522</ele>
        <time>2017-07-30T08:46:41Z</time>
      </trkpt>
      <trkpt lat="42.60314" lon="-0.16693">
        <ele>1520.2</ele>
        <time>2017-07-30T08:46:42Z</time>
      </trkpt>
      <trkpt lat="42.60311" lon="-0.16701">
        <ele>1519.3</ele>
        <time>2017-07-30T08:46:43Z</time>
      </trkpt>
      <trkpt lat="42.60309" lon="-0.16708">
        <ele>1519.3</ele>
        <time>2017-07-30T08:46:44Z</time>
      </trkpt>
      <trkpt lat="42.60308" lon="-0.16713">
        <ele>1519.4</ele>
        <time>2017-07-30T08:46:45Z</time>
      </trkpt>
      <trkpt lat="42.60306" lon="-0.16717">
        <ele>1519.7</ele>
        <time>2017-07-30T08:46:46Z</time>
      </trkpt>
      <trkpt lat="42.60305" lon="-0.16721">
        <ele>1520</ele>
        <time>2017-07-30T08:46:48Z</time>
      </trkpt>
      <trkpt lat="42.60305" lon="-0.16725">
        <ele>1520.3</ele>
        <time>2017-07-30T08:50:59Z</time>
      </trkpt>
      <trkpt lat="42.60303" lon="-0.16731">
        <ele>1520.8</ele>
        <time>2017-07-30T08:51:01Z</time>
      </trkpt>
      <trkpt lat="42.60303" lon="-0.16735">
        <ele>1521.1</ele>
        <time>2017-07-30T08:51:02Z</time>
      </trkpt>
      <trkpt lat="42.60304" lon="-0.1674">
        <ele>1521.4</ele>
        <time>2017-07-30T08:51:03Z</time>
      </trkpt>
      <trkpt lat="42.60304" lon="-0.16745">
        <ele>1521.7</ele>
        <time>2017-07-30T08:51:04Z</time>
      </trkpt>
      <trkpt lat="42.60303" lon="-0.16751">
        <ele>1521.7</ele>
        <time>2017-07-30T08:51:05Z</time>
      </trkpt>
      <trkpt lat="42.60302" lon="-0.16757">
        <ele>1521.8</ele>
        <time>2017-07-30T08:51:06Z</time>
      </trkpt>
      <trkpt lat="42.60298" lon="-0.16764">
        <ele>1522.2</ele>
        <time>2017-07-30T08:51:07Z</time>
      </trkpt>
      <trkpt lat="42.60295" lon="-0.16771">
        <ele>1522</ele>
        <time>2017-07-30T08:51:08Z</time>
      </trkpt>
      <trkpt lat="42.60292" lon="-0.16777">
        <ele>1522</ele>
        <time>2017-07-30T08:51:09Z</time>
      </trkpt>
      <trkpt lat="42.6029" lon="-0.16782">
        <ele>1522.3</ele>
        <time>2017-07-30T08:51:10Z</time>
      </trkpt>
      <trkpt lat="42.60287" lon="-0.16787">
        <ele>1522.5</ele>
        <time>2017-07-30T08:51:11Z</time>
      </trkpt>
      <trkpt lat="42.60286" lon="-0.16792">
        <ele>1522.3</ele>
        <time>2017-07-30T08:51:12Z</time>
      </trkpt>
      <trkpt lat="42.60284" lon="-0.16797">
        <ele>1522.4</ele>
        <time>2017-07-30T08:51:13Z</time>
      </trkpt>
      <trkpt lat="42.60283" lon="-0.16801">
        <ele>1522.1</ele>
        <time>2017-07-30T08:51:14Z</time>
      </trkpt>
      <trkpt lat="42.60281" lon="-0.16806">
        <ele>1521.3</ele>
        <time>2017-07-30T08:51:15Z</time>
      </trkpt>
      <trkpt lat="42.6028" lon="-0.16811">
        <ele>1520.6</ele>
        <time>2017-07-30T08:51:16Z</time>
      </trkpt>
      <trkpt lat="42.60278" lon="-0.16814">
        <ele>1521</ele>
        <time>2017-07-30T08:51:17Z</time>
      </trkpt>
      <trkpt lat="42.60275" lon="-0.16819">
        <ele>1519.5</ele>
        <time>2017-07-30T08:51:19Z</time>
      </trkpt>
      <trkpt lat="42.60272" lon="-0.16824">
        <ele>1519.3</ele>
        <time>2017-07-30T08:51:21Z</time>
      </trkpt>
      <trkpt lat="42.60271" lon="-0.16828">
        <ele>1518.6</ele>
        <time>2017-07-30T08:51:22Z</time>
      </trkpt>
      <trkpt lat="42.6027" lon="-0.16831">
        <ele>1518.6</ele>
        <time>2017-07-30T08:51:23Z</time>
      </trkpt>
      <trkpt lat="42.60268" lon="-0.16835">
        <ele>1519</ele>
        <time>2017-07-30T08:51:24Z</time>
      </trkpt>
      <trkpt lat="42.60266" lon="-0.1684">
        <ele>1519.6</ele>
        <time>2017-07-30T08:51:25Z</time>
      </trkpt>
      <trkpt lat="42.60265" lon="-0.16843">
        <ele>1519.3</ele>
        <time>2017-07-30T08:51:26Z</time>
      </trkpt>
      <trkpt lat="42.60262" lon="-0.16848">
        <ele>1520.1</ele>
        <time>2017-07-30T08:51:28Z</time>
      </trkpt>
      <trkpt lat="42.6026" lon="-0.16851">
        <ele>1520.8</ele>
        <time>2017-07-30T08:51:30Z</time>
      </trkpt>
      <trkpt lat="42.60257" lon="-0.16853">
        <ele>1520.9</ele>
        <time>2017-07-30T08:51:36Z</time>
      </trkpt>
      <trkpt lat="42.6026" lon="-0.16851">
        <ele>1520.9</ele>
        <time>2017-07-30T08:51:42Z</time>
      </trkpt>
      <trkpt lat="42.60263" lon="-0.16849">
        <ele>1519.8</ele>
        <time>2017-07-30T08:51:45Z</time>
      </trkpt>
      <trkpt lat="42.60266" lon="-0.16845">
        <ele>1519</ele>
        <time>2017-07-30T08:51:48Z</time>
      </trkpt>
      <trkpt lat="42.60268" lon="-0.16842">
        <ele>1518.3</ele>
        <time>2017-07-30T08:51:52Z</time>
      </trkpt>
      <trkpt lat="42.60269" lon="-0.16838">
        <ele>1518.8</ele>
        <time>2017-07-30T08:51:56Z</time>
      </trkpt>
      <trkpt lat="42.60271" lon="-0.16835">
        <ele>1518.3</ele>
        <time>2017-07-30T08:51:59Z</time>
      </trkpt>
      <trkpt lat="42.60273" lon="-0.16831">
        <ele>1518.2</ele>
        <time>2017-07-30T08:52:02Z</time>
      </trkpt>
      <trkpt lat="42.60274" lon="-0.16827">
        <ele>1519.1</ele>
        <time>2017-07-30T08:52:05Z</time>
      </trkpt>
      <trkpt lat="42.60276" lon="-0.16824">
        <ele>1519.1</ele>
        <time>2017-07-30T08:52:08Z</time>
      </trkpt>
      <trkpt lat="42.60278" lon="-0.1682">
        <ele>1519.6</ele>
        <time>2017-07-30T08:52:11Z</time>
      </trkpt>
      <trkpt lat="42.60279" lon="-0.16817">
        <ele>1520.6</ele>
        <time>2017-07-30T08:52:14Z</time>
      </trkpt>
      <trkpt lat="42.60279" lon="-0.16812">
        <ele>1521.2</ele>
        <time>2017-07-30T08:52:26Z</time>
      </trkpt>
      <trkpt lat="42.60278" lon="-0.16816">
        <ele>1520.7</ele>
        <time>2017-07-30T08:52:33Z</time>
      </trkpt>
      <trkpt lat="42.60276" lon="-0.1682">
        <ele>1519.7</ele>
        <time>2017-07-30T08:52:37Z</time>
      </trkpt>
      <trkpt lat="42.60275" lon="-0.16824">
        <ele>1519.3</ele>
        <time>2017-07-30T08:52:41Z</time>
      </trkpt>
      <trkpt lat="42.60273" lon="-0.16828">
        <ele>1518.4</ele>
        <time>2017-07-30T08:52:45Z</time>
      </trkpt>
      <trkpt lat="42.6027" lon="-0.16831">
        <ele>1519.3</ele>
        <time>2017-07-30T08:52:48Z</time>
      </trkpt>
      <trkpt lat="42.60268" lon="-0.16835">
        <ele>1519.6</ele>
        <time>2017-07-30T08:52:51Z</time>
      </trkpt>
      <trkpt lat="42.60267" lon="-0.1684">
        <ele>1519.2</ele>
        <time>2017-07-30T08:52:55Z</time>
      </trkpt>
      <trkpt lat="42.60266" lon="-0.16843">
        <ele>1520</ele>
        <time>2017-07-30T08:52:58Z</time>
      </trkpt>
      <trkpt lat="42.60265" lon="-0.16847">
        <ele>1519.6</ele>
        <time>2017-07-30T08:53:02Z</time>
      </trkpt>
      <trkpt lat="42.60267" lon="-0.1685">
        <ele>1517.8</ele>
        <time>2017-07-30T08:53:23Z</time>
      </trkpt>
      <trkpt lat="42.60269" lon="-0.16846">
        <ele>1517.1</ele>
        <time>2017-07-30T08:53:26Z</time>
      </trkpt>
      <trkpt lat="42.60271" lon="-0.16843">
        <ele>1517.7</ele>
        <time>2017-07-30T08:53:28Z</time>
      </trkpt>
      <trkpt lat="42.60273" lon="-0.16838">
        <ele>1517.3</ele>
        <time>2017-07-30T08:53:30Z</time>
      </trkpt>
      <trkpt lat="42.60275" lon="-0.16834">
        <ele>1518</ele>
        <time>2017-07-30T08:53:32Z</time>
      </trkpt>
      <trkpt lat="42.60276" lon="-0.16829">
        <ele>1518</ele>
        <time>2017-07-30T08:53:34Z</time>
      </trkpt>
      <trkpt lat="42.60277" lon="-0.16825">
        <ele>1519</ele>
        <time>2017-07-30T08:53:36Z</time>
      </trkpt>
      <trkpt lat="42.60277" lon="-0.1682">
        <ele>1520.1</ele>
        <time>2017-07-30T08:53:38Z</time>
      </trkpt>
      <trkpt lat="42.60277" lon="-0.16817">
        <ele>1521.2</ele>
        <time>2017-07-30T08:53:40Z</time>
      </trkpt>
      <trkpt lat="42.60279" lon="-0.16813">
        <ele>1522.1</ele>
        <time>2017-07-30T08:53:43Z</time>
      </trkpt>
      <trkpt lat="42.60282" lon="-0.16814">
        <ele>1521.8</ele>
        <time>2017-07-30T08:53:53Z</time>
      </trkpt>
      <trkpt lat="42.60285" lon="-0.16813">
        <ele>1521.3</ele>
        <time>2017-07-30T08:53:57Z</time>
      </trkpt>
      <trkpt lat="42.60288" lon="-0.16813">
        <ele>1520.7</ele>
        <time>2017-07-30T08:54:05Z</time>
      </trkpt>
      <trkpt lat="42.60292" lon="-0.16812">
        <ele>1519.9</ele>
        <time>2017-07-30T08:54:08Z</time>
      </trkpt>
      <trkpt lat="42.60295" lon="-0.16812">
        <ele>1519</ele>
        <time>2017-07-30T08:54:10Z</time>
      </trkpt>
      <trkpt lat="42.60299" lon="-0.1681">
        <ele>1518</ele>
        <time>2017-07-30T08:54:13Z</time>
      </trkpt>
      <trkpt lat="42.60302" lon="-0.16807">
        <ele>1516.9</ele>
        <time>2017-07-30T08:54:14Z</time>
      </trkpt>
      <trkpt lat="42.60304" lon="-0.16805">
        <ele>1517.9</ele>
        <time>2017-07-30T08:54:15Z</time>
      </trkpt>
      <trkpt lat="42.60307" lon="-0.16803">
        <ele>1516.8</ele>
        <time>2017-07-30T08:54:16Z</time>
      </trkpt>
      <trkpt lat="42.60311" lon="-0.16801">
        <ele>1515.4</ele>
        <time>2017-07-30T08:54:18Z</time>
      </trkpt>
      <trkpt lat="42.60314" lon="-0.16801">
        <ele>1514</ele>
        <time>2017-07-30T08:54:19Z</time>
      </trkpt>
      <trkpt lat="42.60317" lon="-0.16801">
        <ele>1511.3</ele>
        <time>2017-07-30T08:54:20Z</time>
      </trkpt>
      <trkpt lat="42.60321" lon="-0.16801">
        <ele>1509.8</ele>
        <time>2017-07-30T08:54:21Z</time>
      </trkpt>
      <trkpt lat="42.60324" lon="-0.16801">
        <ele>1509.6</ele>
        <time>2017-07-30T08:54:22Z</time>
      </trkpt>
      <trkpt lat="42.60326" lon="-0.168">
        <ele>1509.6</ele>
        <time>2017-07-30T08:54:23Z</time>
      </trkpt>
      <trkpt lat="42.60329" lon="-0.16799">
        <ele>1508.2</ele>
        <time>2017-07-30T08:54:24Z</time>
      </trkpt>
      <trkpt lat="42.60332" lon="-0.16798">
        <ele>1507.1</ele>
        <time>2017-07-30T08:54:25Z</time>
      </trkpt>
      <trkpt lat="42.60336" lon="-0.16797">
        <ele>1506.2</ele>
        <time>2017-07-30T08:54:26Z</time>
      </trkpt>
      <trkpt lat="42.60339" lon="-0.16796">
        <ele>1505.2</ele>
        <time>2017-07-30T08:54:27Z</time>
      </trkpt>
      <trkpt lat="42.60344" lon="-0.16794">
        <ele>1504.2</ele>
        <time>2017-07-30T08:54:29Z</time>
      </trkpt>
      <trkpt lat="42.60346" lon="-0.16792">
        <ele>1504.2</ele>
        <time>2017-07-30T08:54:30Z</time>
      </trkpt>
      <trkpt lat="42.60349" lon="-0.16791">
        <ele>1503.2</ele>
        <time>2017-07-30T08:54:31Z</time>
      </trkpt>
      <trkpt lat="42.60352" lon="-0.1679">
        <ele>1502.1</ele>
        <time>2017-07-30T08:54:32Z</time>
      </trkpt>
      <trkpt lat="42.60356" lon="-0.16789">
        <ele>1501.1</ele>
        <time>2017-07-30T08:54:33Z</time>
      </trkpt>
      <trkpt lat="42.60359" lon="-0.16789">
        <ele>1500.2</ele>
        <time>2017-07-30T08:54:34Z</time>
      </trkpt>
      <trkpt lat="42.60364" lon="-0.16787">
        <ele>1498.9</ele>
        <time>2017-07-30T08:54:36Z</time>
      </trkpt>
      <trkpt lat="42.60367" lon="-0.16786">
        <ele>1498.9</ele>
        <time>2017-07-30T08:54:37Z</time>
      </trkpt>
      <trkpt lat="42.60371" lon="-0.16783">
        <ele>1497</ele>
        <time>2017-07-30T08:54:39Z</time>
      </trkpt>
      <trkpt lat="42.60375" lon="-0.16782">
        <ele>1495.5</ele>
        <time>2017-07-30T08:54:41Z</time>
      </trkpt>
      <trkpt lat="42.60378" lon="-0.16782">
        <ele>1494</ele>
        <time>2017-07-30T08:54:43Z</time>
      </trkpt>
      <trkpt lat="42.60382" lon="-0.16782">
        <ele>1492.6</ele>
        <time>2017-07-30T08:54:45Z</time>
      </trkpt>
      <trkpt lat="42.60386" lon="-0.1678">
        <ele>1491.1</ele>
        <time>2017-07-30T08:54:47Z</time>
      </trkpt>
      <trkpt lat="42.6039" lon="-0.16778">
        <ele>1489.2</ele>
        <time>2017-07-30T08:54:49Z</time>
      </trkpt>
      <trkpt lat="42.60392" lon="-0.16776">
        <ele>1489.2</ele>
        <time>2017-07-30T08:54:50Z</time>
      </trkpt>
      <trkpt lat="42.60397" lon="-0.16774">
        <ele>1486.9</ele>
        <time>2017-07-30T08:54:52Z</time>
      </trkpt>
      <trkpt lat="42.604" lon="-0.16772">
        <ele>1485.2</ele>
        <time>2017-07-30T08:54:53Z</time>
      </trkpt>
      <trkpt lat="42.60403" lon="-0.16771">
        <ele>1484.4</ele>
        <time>2017-07-30T08:54:54Z</time>
      </trkpt>
      <trkpt lat="42.60406" lon="-0.16768">
        <ele>1482.7</ele>
        <time>2017-07-30T08:54:55Z</time>
      </trkpt>
      <trkpt lat="42.6041" lon="-0.16765">
        <ele>1482.2</ele>
        <time>2017-07-30T08:54:56Z</time>
      </trkpt>
      <trkpt lat="42.60413" lon="-0.16762">
        <ele>1482</ele>
        <time>2017-07-30T08:54:57Z</time>
      </trkpt>
      <trkpt lat="42.60417" lon="-0.16758">
        <ele>1481.9</ele>
        <time>2017-07-30T08:54:58Z</time>
      </trkpt>
      <trkpt lat="42.6042" lon="-0.16755">
        <ele>1480.6</ele>
        <time>2017-07-30T08:54:59Z</time>
      </trkpt>
      <trkpt lat="42.60422" lon="-0.16751">
        <ele>1480.3</ele>
        <time>2017-07-30T08:55:01Z</time>
      </trkpt>
      <trkpt lat="42.60424" lon="-0.16745">
        <ele>1481</ele>
        <time>2017-07-30T08:55:03Z</time>
      </trkpt>
      <trkpt lat="42.60425" lon="-0.16741">
        <ele>1482.2</ele>
        <time>2017-07-30T08:55:04Z</time>
      </trkpt>
      <trkpt lat="42.60428" lon="-0.16735">
        <ele>1481.9</ele>
        <time>2017-07-30T08:55:06Z</time>
      </trkpt>
      <trkpt lat="42.6043" lon="-0.1673">
        <ele>1483</ele>
        <time>2017-07-30T08:55:08Z</time>
      </trkpt>
      <trkpt lat="42.60434" lon="-0.16727">
        <ele>1482.5</ele>
        <time>2017-07-30T08:55:10Z</time>
      </trkpt>
      <trkpt lat="42.60437" lon="-0.16725">
        <ele>1479.9</ele>
        <time>2017-07-30T08:55:12Z</time>
      </trkpt>
      <trkpt lat="42.6044" lon="-0.16723">
        <ele>1479.6</ele>
        <time>2017-07-30T08:55:13Z</time>
      </trkpt>
      <trkpt lat="42.60444" lon="-0.1672">
        <ele>1478.6</ele>
        <time>2017-07-30T08:55:14Z</time>
      </trkpt>
      <trkpt lat="42.60447" lon="-0.16719">
        <ele>1478.3</ele>
        <time>2017-07-30T08:55:15Z</time>
      </trkpt>
      <trkpt lat="42.60451" lon="-0.16716">
        <ele>1477.1</ele>
        <time>2017-07-30T08:55:17Z</time>
      </trkpt>
      <trkpt lat="42.60455" lon="-0.16714">
        <ele>1476.5</ele>
        <time>2017-07-30T08:55:19Z</time>
      </trkpt>
      <trkpt lat="42.60456" lon="-0.1671">
        <ele>1475.8</ele>
        <time>2017-07-30T08:55:22Z</time>
      </trkpt>
      <trkpt lat="42.60458" lon="-0.16714">
        <ele>1475.1</ele>
        <time>2017-07-30T08:55:29Z</time>
      </trkpt>
      <trkpt lat="42.60462" lon="-0.16711">
        <ele>1474.3</ele>
        <time>2017-07-30T08:55:42Z</time>
      </trkpt>
      <trkpt lat="42.60465" lon="-0.16709">
        <ele>1472.8</ele>
        <time>2017-07-30T08:55:43Z</time>
      </trkpt>
      <trkpt lat="42.60469" lon="-0.16706">
        <ele>1470.8</ele>
        <time>2017-07-30T08:55:45Z</time>
      </trkpt>
      <trkpt lat="42.60472" lon="-0.16703">
        <ele>1470.2</ele>
        <time>2017-07-30T08:55:46Z</time>
      </trkpt>
      <trkpt lat="42.60477" lon="-0.16699">
        <ele>1469</ele>
        <time>2017-07-30T08:55:47Z</time>
      </trkpt>
      <trkpt lat="42.6048" lon="-0.16697">
        <ele>1467.9</ele>
        <time>2017-07-30T08:55:48Z</time>
      </trkpt>
      <trkpt lat="42.60483" lon="-0.16692">
        <ele>1466.4</ele>
        <time>2017-07-30T08:55:50Z</time>
      </trkpt>
      <trkpt lat="42.60485" lon="-0.16689">
        <ele>1464.7</ele>
        <time>2017-07-30T08:55:51Z</time>
      </trkpt>
      <trkpt lat="42.60487" lon="-0.16686">
        <ele>1464.8</ele>
        <time>2017-07-30T08:55:52Z</time>
      </trkpt>
      <trkpt lat="42.6049" lon="-0.16682">
        <ele>1462.9</ele>
        <time>2017-07-30T08:55:53Z</time>
      </trkpt>
      <trkpt lat="42.60492" lon="-0.1668">
        <ele>1460.9</ele>
        <time>2017-07-30T08:55:54Z</time>
      </trkpt>
      <trkpt lat="42.60495" lon="-0.16675">
        <ele>1458.9</ele>
        <time>2017-07-30T08:55:56Z</time>
      </trkpt>
      <trkpt lat="42.60495" lon="-0.16668">
        <ele>1458.5</ele>
        <time>2017-07-30T08:55:58Z</time>
      </trkpt>
      <trkpt lat="42.60496" lon="-0.16663">
        <ele>1458.4</ele>
        <time>2017-07-30T08:55:59Z</time>
      </trkpt>
      <trkpt lat="42.60497" lon="-0.16659">
        <ele>1456.9</ele>
        <time>2017-07-30T08:56:00Z</time>
      </trkpt>
      <trkpt lat="42.60499" lon="-0.16654">
        <ele>1457</ele>
        <time>2017-07-30T08:56:01Z</time>
      </trkpt>
      <trkpt lat="42.60502" lon="-0.1665">
        <ele>1455.6</ele>
        <time>2017-07-30T08:56:02Z</time>
      </trkpt>
      <trkpt lat="42.60504" lon="-0.16645">
        <ele>1454.1</ele>
        <time>2017-07-30T08:56:03Z</time>
      </trkpt>
      <trkpt lat="42.60505" lon="-0.16641">
        <ele>1454.1</ele>
        <time>2017-07-30T08:56:04Z</time>
      </trkpt>
      <trkpt lat="42.60506" lon="-0.16636">
        <ele>1454</ele>
        <time>2017-07-30T08:56:05Z</time>
      </trkpt>
      <trkpt lat="42.60507" lon="-0.16632">
        <ele>1452.2</ele>
        <time>2017-07-30T08:56:06Z</time>
      </trkpt>
      <trkpt lat="42.60508" lon="-0.16628">
        <ele>1452.1</ele>
        <time>2017-07-30T08:56:07Z</time>
      </trkpt>
      <trkpt lat="42.60507" lon="-0.16623">
        <ele>1452</ele>
        <time>2017-07-30T08:56:14Z</time>
      </trkpt>
      <trkpt lat="42.60509" lon="-0.16628">
        <ele>1452.2</ele>
        <time>2017-07-30T08:56:18Z</time>
      </trkpt>
      <trkpt lat="42.60512" lon="-0.16632">
        <ele>1450.5</ele>
        <time>2017-07-30T08:56:20Z</time>
      </trkpt>
      <trkpt lat="42.60513" lon="-0.16635">
        <ele>1448.5</ele>
        <time>2017-07-30T08:56:21Z</time>
      </trkpt>
      <trkpt lat="42.60515" lon="-0.16639">
        <ele>1448.5</ele>
        <time>2017-07-30T08:56:22Z</time>
      </trkpt>
      <trkpt lat="42.60516" lon="-0.16643">
        <ele>1446.2</ele>
        <time>2017-07-30T08:56:23Z</time>
      </trkpt>
      <trkpt lat="42.60517" lon="-0.16648">
        <ele>1446</ele>
        <time>2017-07-30T08:56:24Z</time>
      </trkpt>
      <trkpt lat="42.60517" lon="-0.16654">
        <ele>1445.9</ele>
        <time>2017-07-30T08:56:26Z</time>
      </trkpt>
      <trkpt lat="42.60515" lon="-0.16656">
        <ele>1448</ele>
        <time>2017-07-30T08:56:28Z</time>
      </trkpt>
      <trkpt lat="42.60516" lon="-0.16652">
        <ele>1445.9</ele>
        <time>2017-07-30T08:56:33Z</time>
      </trkpt>
      <trkpt lat="42.60518" lon="-0.16645">
        <ele>1446.3</ele>
        <time>2017-07-30T08:56:35Z</time>
      </trkpt>
      <trkpt lat="42.60518" lon="-0.1664">
        <ele>1446.5</ele>
        <time>2017-07-30T08:56:36Z</time>
      </trkpt>
      <trkpt lat="42.60519" lon="-0.16635">
        <ele>1446.6</ele>
        <time>2017-07-30T08:56:37Z</time>
      </trkpt>
      <trkpt lat="42.60519" lon="-0.16631">
        <ele>1444.7</ele>
        <time>2017-07-30T08:56:38Z</time>
      </trkpt>
      <trkpt lat="42.6052" lon="-0.16626">
        <ele>1444.8</ele>
        <time>2017-07-30T08:56:40Z</time>
      </trkpt>
      <trkpt lat="42.60523" lon="-0.16628">
        <ele>1442.9</ele>
        <time>2017-07-30T08:56:45Z</time>
      </trkpt>
      <trkpt lat="42.60524" lon="-0.16632">
        <ele>1442.7</ele>
        <time>2017-07-30T08:56:48Z</time>
      </trkpt>
      <trkpt lat="42.60527" lon="-0.16637">
        <ele>1440.6</ele>
        <time>2017-07-30T08:56:51Z</time>
      </trkpt>
      <trkpt lat="42.60529" lon="-0.1664">
        <ele>1438.5</ele>
        <time>2017-07-30T08:56:52Z</time>
      </trkpt>
      <trkpt lat="42.6053" lon="-0.16643">
        <ele>1438.3</ele>
        <time>2017-07-30T08:56:53Z</time>
      </trkpt>
      <trkpt lat="42.6053" lon="-0.16649">
        <ele>1438.2</ele>
        <time>2017-07-30T08:56:55Z</time>
      </trkpt>
      <trkpt lat="42.6053" lon="-0.16656">
        <ele>1437.9</ele>
        <time>2017-07-30T08:56:57Z</time>
      </trkpt>
      <trkpt lat="42.60531" lon="-0.1666">
        <ele>1438</ele>
        <time>2017-07-30T08:56:58Z</time>
      </trkpt>
      <trkpt lat="42.60532" lon="-0.16665">
        <ele>1435.7</ele>
        <time>2017-07-30T08:56:59Z</time>
      </trkpt>
      <trkpt lat="42.60533" lon="-0.1667">
        <ele>1435.6</ele>
        <time>2017-07-30T08:57:00Z</time>
      </trkpt>
      <trkpt lat="42.60535" lon="-0.16675">
        <ele>1435.5</ele>
        <time>2017-07-30T08:57:01Z</time>
      </trkpt>
      <trkpt lat="42.60535" lon="-0.1668">
        <ele>1433.1</ele>
        <time>2017-07-30T08:57:02Z</time>
      </trkpt>
      <trkpt lat="42.60537" lon="-0.16687">
        <ele>1433.1</ele>
        <time>2017-07-30T08:57:03Z</time>
      </trkpt>
      <trkpt lat="42.60538" lon="-0.16692">
        <ele>1433.1</ele>
        <time>2017-07-30T08:57:04Z</time>
      </trkpt>
      <trkpt lat="42.60539" lon="-0.16697">
        <ele>1430.9</ele>
        <time>2017-07-30T08:57:05Z</time>
      </trkpt>
      <trkpt lat="42.60541" lon="-0.16701">
        <ele>1431.2</ele>
        <time>2017-07-30T08:57:06Z</time>
      </trkpt>
      <trkpt lat="42.60543" lon="-0.16705">
        <ele>1429.4</ele>
        <time>2017-07-30T08:57:07Z</time>
      </trkpt>
      <trkpt lat="42.60545" lon="-0.16709">
        <ele>1427.7</ele>
        <time>2017-07-30T08:57:08Z</time>
      </trkpt>
      <trkpt lat="42.60546" lon="-0.16713">
        <ele>1428.4</ele>
        <time>2017-07-30T08:57:10Z</time>
      </trkpt>
      <trkpt lat="42.60549" lon="-0.16713">
        <ele>1426.4</ele>
        <time>2017-07-30T08:57:13Z</time>
      </trkpt>
      <trkpt lat="42.60551" lon="-0.16704">
        <ele>1423.3</ele>
        <time>2017-07-30T08:57:15Z</time>
      </trkpt>
      <trkpt lat="42.60552" lon="-0.167">
        <ele>1422.8</ele>
        <time>2017-07-30T08:57:16Z</time>
      </trkpt>
      <trkpt lat="42.60553" lon="-0.16696">
        <ele>1422.4</ele>
        <time>2017-07-30T08:57:17Z</time>
      </trkpt>
      <trkpt lat="42.60553" lon="-0.16692">
        <ele>1422.2</ele>
        <time>2017-07-30T08:57:18Z</time>
      </trkpt>
      <trkpt lat="42.60554" lon="-0.16689">
        <ele>1420.5</ele>
        <time>2017-07-30T08:57:19Z</time>
      </trkpt>
      <trkpt lat="42.60554" lon="-0.16684">
        <ele>1420.7</ele>
        <time>2017-07-30T08:57:20Z</time>
      </trkpt>
      <trkpt lat="42.60555" lon="-0.1668">
        <ele>1421</ele>
        <time>2017-07-30T08:57:21Z</time>
      </trkpt>
      <trkpt lat="42.60556" lon="-0.16676">
        <ele>1421.3</ele>
        <time>2017-07-30T08:57:22Z</time>
      </trkpt>
      <trkpt lat="42.60556" lon="-0.16672">
        <ele>1421.6</ele>
        <time>2017-07-30T08:57:23Z</time>
      </trkpt>
      <trkpt lat="42.60557" lon="-0.16667">
        <ele>1421.8</ele>
        <time>2017-07-30T08:57:24Z</time>
      </trkpt>
      <trkpt lat="42.60557" lon="-0.16662">
        <ele>1422</ele>
        <time>2017-07-30T08:57:25Z</time>
      </trkpt>
      <trkpt lat="42.60557" lon="-0.16656">
        <ele>1420.6</ele>
        <time>2017-07-30T08:57:26Z</time>
      </trkpt>
      <trkpt lat="42.60558" lon="-0.16651">
        <ele>1420.5</ele>
        <time>2017-07-30T08:57:27Z</time>
      </trkpt>
      <trkpt lat="42.60559" lon="-0.16646">
        <ele>1420.5</ele>
        <time>2017-07-30T08:57:28Z</time>
      </trkpt>
      <trkpt lat="42.6056" lon="-0.16643">
        <ele>1420.5</ele>
        <time>2017-07-30T08:57:29Z</time>
      </trkpt>
      <trkpt lat="42.60561" lon="-0.16639">
        <ele>1418.9</ele>
        <time>2017-07-30T08:57:33Z</time>
      </trkpt>
      <trkpt lat="42.60561" lon="-0.16643">
        <ele>1419</ele>
        <time>2017-07-30T08:57:40Z</time>
      </trkpt>
      <trkpt lat="42.60561" lon="-0.16648">
        <ele>1419.1</ele>
        <time>2017-07-30T08:57:42Z</time>
      </trkpt>
      <trkpt lat="42.60562" lon="-0.16652">
        <ele>1419.2</ele>
        <time>2017-07-30T08:57:43Z</time>
      </trkpt>
      <trkpt lat="42.60562" lon="-0.16658">
        <ele>1419.2</ele>
        <time>2017-07-30T08:57:44Z</time>
      </trkpt>
      <trkpt lat="42.60563" lon="-0.16662">
        <ele>1419.2</ele>
        <time>2017-07-30T08:57:45Z</time>
      </trkpt>
      <trkpt lat="42.60564" lon="-0.16667">
        <ele>1417.4</ele>
        <time>2017-07-30T08:57:46Z</time>
      </trkpt>
      <trkpt lat="42.60566" lon="-0.16671">
        <ele>1417.2</ele>
        <time>2017-07-30T08:57:48Z</time>
      </trkpt>
      <trkpt lat="42.60569" lon="-0.1667">
        <ele>1415.5</ele>
        <time>2017-07-30T08:57:52Z</time>
      </trkpt>
      <trkpt lat="42.60573" lon="-0.16664">
        <ele>1414.1</ele>
        <time>2017-07-30T08:57:54Z</time>
      </trkpt>
      <trkpt lat="42.60575" lon="-0.1666">
        <ele>1412.4</ele>
        <time>2017-07-30T08:57:55Z</time>
      </trkpt>
      <trkpt lat="42.60577" lon="-0.16657">
        <ele>1411.1</ele>
        <time>2017-07-30T08:57:56Z</time>
      </trkpt>
      <trkpt lat="42.60579" lon="-0.16654">
        <ele>1411.3</ele>
        <time>2017-07-30T08:57:57Z</time>
      </trkpt>
      <trkpt lat="42.60581" lon="-0.1665">
        <ele>1410.1</ele>
        <time>2017-07-30T08:57:58Z</time>
      </trkpt>
      <trkpt lat="42.60582" lon="-0.16647">
        <ele>1409</ele>
        <time>2017-07-30T08:57:59Z</time>
      </trkpt>
      <trkpt lat="42.60585" lon="-0.16642">
        <ele>1409.1</ele>
        <time>2017-07-30T08:58:01Z</time>
      </trkpt>
      <trkpt lat="42.60587" lon="-0.16639">
        <ele>1407.9</ele>
        <time>2017-07-30T08:58:03Z</time>
      </trkpt>
      <trkpt lat="42.6059" lon="-0.16643">
        <ele>1406.3</ele>
        <time>2017-07-30T08:58:06Z</time>
      </trkpt>
      <trkpt lat="42.60593" lon="-0.16649">
        <ele>1404.4</ele>
        <time>2017-07-30T08:58:08Z</time>
      </trkpt>
      <trkpt lat="42.60595" lon="-0.16653">
        <ele>1404.1</ele>
        <time>2017-07-30T08:58:09Z</time>
      </trkpt>
      <trkpt lat="42.60596" lon="-0.16656">
        <ele>1402.1</ele>
        <time>2017-07-30T08:58:10Z</time>
      </trkpt>
      <trkpt lat="42.60598" lon="-0.16659">
        <ele>1402.1</ele>
        <time>2017-07-30T08:58:11Z</time>
      </trkpt>
      <trkpt lat="42.606" lon="-0.16664">
        <ele>1400</ele>
        <time>2017-07-30T08:58:13Z</time>
      </trkpt>
      <trkpt lat="42.60602" lon="-0.16667">
        <ele>1398</ele>
        <time>2017-07-30T08:58:15Z</time>
      </trkpt>
      <trkpt lat="42.60603" lon="-0.16671">
        <ele>1398</ele>
        <time>2017-07-30T08:58:17Z</time>
      </trkpt>
      <trkpt lat="42.60606" lon="-0.16673">
        <ele>1396</ele>
        <time>2017-07-30T08:58:21Z</time>
      </trkpt>
      <trkpt lat="42.60608" lon="-0.1667">
        <ele>1394.5</ele>
        <time>2017-07-30T08:58:27Z</time>
      </trkpt>
      <trkpt lat="42.60609" lon="-0.16675">
        <ele>1394.4</ele>
        <time>2017-07-30T08:58:33Z</time>
      </trkpt>
      <trkpt lat="42.6061" lon="-0.16678">
        <ele>1394.2</ele>
        <time>2017-07-30T08:58:34Z</time>
      </trkpt>
      <trkpt lat="42.6061" lon="-0.16682">
        <ele>1394</ele>
        <time>2017-07-30T08:58:35Z</time>
      </trkpt>
      <trkpt lat="42.60611" lon="-0.16687">
        <ele>1393.9</ele>
        <time>2017-07-30T08:58:37Z</time>
      </trkpt>
      <trkpt lat="42.6061" lon="-0.16692">
        <ele>1393.9</ele>
        <time>2017-07-30T08:58:45Z</time>
      </trkpt>
      <trkpt lat="42.60612" lon="-0.16696">
        <ele>1392.3</ele>
        <time>2017-07-30T08:58:47Z</time>
      </trkpt>
      <trkpt lat="42.60615" lon="-0.167">
        <ele>1390.6</ele>
        <time>2017-07-30T08:58:49Z</time>
      </trkpt>
      <trkpt lat="42.60616" lon="-0.16704">
        <ele>1390.7</ele>
        <time>2017-07-30T08:58:51Z</time>
      </trkpt>
      <trkpt lat="42.60619" lon="-0.16702">
        <ele>1388.7</ele>
        <time>2017-07-30T08:59:06Z</time>
      </trkpt>
      <trkpt lat="42.60621" lon="-0.167">
        <ele>1386.6</ele>
        <time>2017-07-30T08:59:11Z</time>
      </trkpt>
      <trkpt lat="42.60622" lon="-0.16696">
        <ele>1386.6</ele>
        <time>2017-07-30T08:59:16Z</time>
      </trkpt>
      <trkpt lat="42.60625" lon="-0.16694">
        <ele>1384.5</ele>
        <time>2017-07-30T08:59:18Z</time>
      </trkpt>
      <trkpt lat="42.60627" lon="-0.16692">
        <ele>1382.3</ele>
        <time>2017-07-30T08:59:21Z</time>
      </trkpt>
      <trkpt lat="42.60631" lon="-0.16691">
        <ele>1380.3</ele>
        <time>2017-07-30T08:59:25Z</time>
      </trkpt>
      <trkpt lat="42.60633" lon="-0.16687">
        <ele>1378.7</ele>
        <time>2017-07-30T08:59:28Z</time>
      </trkpt>
      <trkpt lat="42.60636" lon="-0.16682">
        <ele>1377.5</ele>
        <time>2017-07-30T08:59:30Z</time>
      </trkpt>
      <trkpt lat="42.60639" lon="-0.16678">
        <ele>1376.4</ele>
        <time>2017-07-30T08:59:32Z</time>
      </trkpt>
      <trkpt lat="42.60641" lon="-0.16676">
        <ele>1376.8</ele>
        <time>2017-07-30T08:59:33Z</time>
      </trkpt>
      <trkpt lat="42.60643" lon="-0.16673">
        <ele>1375.3</ele>
        <time>2017-07-30T08:59:34Z</time>
      </trkpt>
      <trkpt lat="42.60645" lon="-0.16669">
        <ele>1375.6</ele>
        <time>2017-07-30T08:59:35Z</time>
      </trkpt>
      <trkpt lat="42.60646" lon="-0.16664">
        <ele>1374.1</ele>
        <time>2017-07-30T08:59:36Z</time>
      </trkpt>
      <trkpt lat="42.60646" lon="-0.1666">
        <ele>1374.5</ele>
        <time>2017-07-30T08:59:38Z</time>
      </trkpt>
      <trkpt lat="42.60648" lon="-0.16656">
        <ele>1374.6</ele>
        <time>2017-07-30T08:59:42Z</time>
      </trkpt>
      <trkpt lat="42.60645" lon="-0.16657">
        <ele>1376.3</ele>
        <time>2017-07-30T08:59:48Z</time>
      </trkpt>
      <trkpt lat="42.60644" lon="-0.16661">
        <ele>1376.2</ele>
        <time>2017-07-30T08:59:56Z</time>
      </trkpt>
      <trkpt lat="42.60646" lon="-0.16667">
        <ele>1374.3</ele>
        <time>2017-07-30T08:59:58Z</time>
      </trkpt>
      <trkpt lat="42.60649" lon="-0.16673">
        <ele>1372.1</ele>
        <time>2017-07-30T09:00:00Z</time>
      </trkpt>
      <trkpt lat="42.6065" lon="-0.16677">
        <ele>1371.8</ele>
        <time>2017-07-30T09:00:01Z</time>
      </trkpt>
      <trkpt lat="42.60652" lon="-0.16682">
        <ele>1369.8</ele>
        <time>2017-07-30T09:00:02Z</time>
      </trkpt>
      <trkpt lat="42.60652" lon="-0.16686">
        <ele>1369.5</ele>
        <time>2017-07-30T09:00:03Z</time>
      </trkpt>
      <trkpt lat="42.60653" lon="-0.1669">
        <ele>1369.3</ele>
        <time>2017-07-30T09:00:04Z</time>
      </trkpt>
      <trkpt lat="42.60652" lon="-0.16694">
        <ele>1369.1</ele>
        <time>2017-07-30T09:00:05Z</time>
      </trkpt>
      <trkpt lat="42.60652" lon="-0.16699">
        <ele>1368.9</ele>
        <time>2017-07-30T09:00:06Z</time>
      </trkpt>
      <trkpt lat="42.60652" lon="-0.16703">
        <ele>1370.4</ele>
        <time>2017-07-30T09:00:07Z</time>
      </trkpt>
      <trkpt lat="42.60651" lon="-0.16707">
        <ele>1370.2</ele>
        <time>2017-07-30T09:00:08Z</time>
      </trkpt>
      <trkpt lat="42.60649" lon="-0.16713">
        <ele>1369.9</ele>
        <time>2017-07-30T09:00:10Z</time>
      </trkpt>
      <trkpt lat="42.60652" lon="-0.16715">
        <ele>1368.1</ele>
        <time>2017-07-30T09:00:15Z</time>
      </trkpt>
      <trkpt lat="42.60655" lon="-0.16712">
        <ele>1366.3</ele>
        <time>2017-07-30T09:00:16Z</time>
      </trkpt>
      <trkpt lat="42.60659" lon="-0.1671">
        <ele>1365</ele>
        <time>2017-07-30T09:00:17Z</time>
      </trkpt>
      <trkpt lat="42.60661" lon="-0.16708">
        <ele>1363.5</ele>
        <time>2017-07-30T09:00:18Z</time>
      </trkpt>
      <trkpt lat="42.60666" lon="-0.16704">
        <ele>1362.5</ele>
        <time>2017-07-30T09:00:20Z</time>
      </trkpt>
      <trkpt lat="42.6067" lon="-0.16701">
        <ele>1361.4</ele>
        <time>2017-07-30T09:00:21Z</time>
      </trkpt>
      <trkpt lat="42.60673" lon="-0.16698">
        <ele>1359.8</ele>
        <time>2017-07-30T09:00:22Z</time>
      </trkpt>
      <trkpt lat="42.60675" lon="-0.16696">
        <ele>1358.2</ele>
        <time>2017-07-30T09:00:23Z</time>
      </trkpt>
      <trkpt lat="42.60677" lon="-0.16693">
        <ele>1356.4</ele>
        <time>2017-07-30T09:00:24Z</time>
      </trkpt>
      <trkpt lat="42.60679" lon="-0.1669">
        <ele>1356.4</ele>
        <time>2017-07-30T09:00:25Z</time>
      </trkpt>
      <trkpt lat="42.60681" lon="-0.16685">
        <ele>1354.6</ele>
        <time>2017-07-30T09:00:26Z</time>
      </trkpt>
      <trkpt lat="42.60683" lon="-0.1668">
        <ele>1352.6</ele>
        <time>2017-07-30T09:00:27Z</time>
      </trkpt>
      <trkpt lat="42.60685" lon="-0.16677">
        <ele>1352.7</ele>
        <time>2017-07-30T09:00:28Z</time>
      </trkpt>
      <trkpt lat="42.60687" lon="-0.16672">
        <ele>1351.3</ele>
        <time>2017-07-30T09:00:30Z</time>
      </trkpt>
      <trkpt lat="42.60688" lon="-0.16665">
        <ele>1351.6</ele>
        <time>2017-07-30T09:00:32Z</time>
      </trkpt>
      <trkpt lat="42.60689" lon="-0.16661">
        <ele>1352.1</ele>
        <time>2017-07-30T09:00:33Z</time>
      </trkpt>
      <trkpt lat="42.60689" lon="-0.16657">
        <ele>1352.5</ele>
        <time>2017-07-30T09:00:35Z</time>
      </trkpt>
      <trkpt lat="42.60689" lon="-0.16653">
        <ele>1353</ele>
        <time>2017-07-30T09:00:39Z</time>
      </trkpt>
      <trkpt lat="42.60692" lon="-0.16655">
        <ele>1351.4</ele>
        <time>2017-07-30T09:00:48Z</time>
      </trkpt>
      <trkpt lat="42.60695" lon="-0.16661">
        <ele>1348.8</ele>
        <time>2017-07-30T09:00:50Z</time>
      </trkpt>
      <trkpt lat="42.60696" lon="-0.16664">
        <ele>1347.3</ele>
        <time>2017-07-30T09:00:51Z</time>
      </trkpt>
      <trkpt lat="42.60697" lon="-0.16668">
        <ele>1346.8</ele>
        <time>2017-07-30T09:00:52Z</time>
      </trkpt>
      <trkpt lat="42.60697" lon="-0.16673">
        <ele>1346</ele>
        <time>2017-07-30T09:00:53Z</time>
      </trkpt>
      <trkpt lat="42.60698" lon="-0.16677">
        <ele>1345.6</ele>
        <time>2017-07-30T09:00:54Z</time>
      </trkpt>
      <trkpt lat="42.607" lon="-0.16682">
        <ele>1343.3</ele>
        <time>2017-07-30T09:00:55Z</time>
      </trkpt>
      <trkpt lat="42.607" lon="-0.16686">
        <ele>1343</ele>
        <time>2017-07-30T09:00:56Z</time>
      </trkpt>
      <trkpt lat="42.60701" lon="-0.16691">
        <ele>1342.8</ele>
        <time>2017-07-30T09:00:58Z</time>
      </trkpt>
      <trkpt lat="42.60701" lon="-0.16695">
        <ele>1342.7</ele>
        <time>2017-07-30T09:01:00Z</time>
      </trkpt>
      <trkpt lat="42.60701" lon="-0.16699">
        <ele>1342.7</ele>
        <time>2017-07-30T09:01:04Z</time>
      </trkpt>
      <trkpt lat="42.60705" lon="-0.16698">
        <ele>1340.7</ele>
        <time>2017-07-30T09:01:07Z</time>
      </trkpt>
      <trkpt lat="42.6071" lon="-0.16695">
        <ele>1336.2</ele>
        <time>2017-07-30T09:01:09Z</time>
      </trkpt>
      <trkpt lat="42.60714" lon="-0.16692">
        <ele>1334.2</ele>
        <time>2017-07-30T09:01:11Z</time>
      </trkpt>
      <trkpt lat="42.60716" lon="-0.16688">
        <ele>1332.5</ele>
        <time>2017-07-30T09:01:13Z</time>
      </trkpt>
      <trkpt lat="42.60718" lon="-0.16683">
        <ele>1331.1</ele>
        <time>2017-07-30T09:01:15Z</time>
      </trkpt>
      <trkpt lat="42.6072" lon="-0.16679">
        <ele>1331.6</ele>
        <time>2017-07-30T09:01:17Z</time>
      </trkpt>
      <trkpt lat="42.60722" lon="-0.16674">
        <ele>1330.4</ele>
        <time>2017-07-30T09:01:19Z</time>
      </trkpt>
      <trkpt lat="42.60725" lon="-0.16669">
        <ele>1329.1</ele>
        <time>2017-07-30T09:01:21Z</time>
      </trkpt>
      <trkpt lat="42.60728" lon="-0.16664">
        <ele>1328.3</ele>
        <time>2017-07-30T09:01:23Z</time>
      </trkpt>
      <trkpt lat="42.6073" lon="-0.1666">
        <ele>1328.3</ele>
        <time>2017-07-30T09:01:24Z</time>
      </trkpt>
      <trkpt lat="42.60731" lon="-0.16656">
        <ele>1327</ele>
        <time>2017-07-30T09:01:25Z</time>
      </trkpt>
      <trkpt lat="42.60733" lon="-0.16652">
        <ele>1327.9</ele>
        <time>2017-07-30T09:01:26Z</time>
      </trkpt>
      <trkpt lat="42.60734" lon="-0.16648">
        <ele>1328.8</ele>
        <time>2017-07-30T09:01:27Z</time>
      </trkpt>
      <trkpt lat="42.60734" lon="-0.16644">
        <ele>1327.6</ele>
        <time>2017-07-30T09:01:28Z</time>
      </trkpt>
      <trkpt lat="42.60734" lon="-0.1664">
        <ele>1330.4</ele>
        <time>2017-07-30T09:01:30Z</time>
      </trkpt>
      <trkpt lat="42.60731" lon="-0.16639">
        <ele>1330.4</ele>
        <time>2017-07-30T09:01:32Z</time>
      </trkpt>
      <trkpt lat="42.60728" lon="-0.16641">
        <ele>1332.3</ele>
        <time>2017-07-30T09:01:39Z</time>
      </trkpt>
      <trkpt lat="42.60729" lon="-0.16645">
        <ele>1331.7</ele>
        <time>2017-07-30T09:01:43Z</time>
      </trkpt>
      <trkpt lat="42.60731" lon="-0.1665">
        <ele>1329</ele>
        <time>2017-07-30T09:01:45Z</time>
      </trkpt>
      <trkpt lat="42.60733" lon="-0.16654">
        <ele>1328.1</ele>
        <time>2017-07-30T09:01:47Z</time>
      </trkpt>
      <trkpt lat="42.60734" lon="-0.16658">
        <ele>1325.1</ele>
        <time>2017-07-30T09:01:49Z</time>
      </trkpt>
      <trkpt lat="42.60735" lon="-0.16662">
        <ele>1324.3</ele>
        <time>2017-07-30T09:01:52Z</time>
      </trkpt>
      <trkpt lat="42.60736" lon="-0.16665">
        <ele>1323.6</ele>
        <time>2017-07-30T09:01:58Z</time>
      </trkpt>
      <trkpt lat="42.60739" lon="-0.16663">
        <ele>1322.1</ele>
        <time>2017-07-30T09:02:00Z</time>
      </trkpt>
      <trkpt lat="42.60743" lon="-0.1666">
        <ele>1319.9</ele>
        <time>2017-07-30T09:02:02Z</time>
      </trkpt>
      <trkpt lat="42.60745" lon="-0.16657">
        <ele>1318.9</ele>
        <time>2017-07-30T09:02:04Z</time>
      </trkpt>
      <trkpt lat="42.60748" lon="-0.16658">
        <ele>1317.1</ele>
        <time>2017-07-30T09:02:15Z</time>
      </trkpt>
      <trkpt lat="42.6075" lon="-0.16656">
        <ele>1315.5</ele>
        <time>2017-07-30T09:02:18Z</time>
      </trkpt>
      <trkpt lat="42.60753" lon="-0.16655">
        <ele>1314.8</ele>
        <time>2017-07-30T09:02:23Z</time>
      </trkpt>
      <trkpt lat="42.60756" lon="-0.16657">
        <ele>1313.8</ele>
        <time>2017-07-30T09:02:28Z</time>
      </trkpt>
      <trkpt lat="42.60758" lon="-0.16655">
        <ele>1313</ele>
        <time>2017-07-30T09:02:37Z</time>
      </trkpt>
      <trkpt lat="42.6076" lon="-0.16658">
        <ele>1310.1</ele>
        <time>2017-07-30T09:02:44Z</time>
      </trkpt>
      <trkpt lat="42.6076" lon="-0.16662">
        <ele>1309.3</ele>
        <time>2017-07-30T09:02:46Z</time>
      </trkpt>
      <trkpt lat="42.6076" lon="-0.16666">
        <ele>1308.6</ele>
        <time>2017-07-30T09:02:48Z</time>
      </trkpt>
      <trkpt lat="42.6076" lon="-0.1667">
        <ele>1308.1</ele>
        <time>2017-07-30T09:02:51Z</time>
      </trkpt>
      <trkpt lat="42.60762" lon="-0.16674">
        <ele>1307.6</ele>
        <time>2017-07-30T09:02:53Z</time>
      </trkpt>
      <trkpt lat="42.60764" lon="-0.16678">
        <ele>1305.2</ele>
        <time>2017-07-30T09:02:56Z</time>
      </trkpt>
      <trkpt lat="42.60767" lon="-0.1668">
        <ele>1303.2</ele>
        <time>2017-07-30T09:02:59Z</time>
      </trkpt>
      <trkpt lat="42.60769" lon="-0.16688">
        <ele>1300.4</ele>
        <time>2017-07-30T09:03:01Z</time>
      </trkpt>
      <trkpt lat="42.60769" lon="-0.16692">
        <ele>1300</ele>
        <time>2017-07-30T09:03:02Z</time>
      </trkpt>
      <trkpt lat="42.60768" lon="-0.16698">
        <ele>1301.8</ele>
        <time>2017-07-30T09:03:04Z</time>
      </trkpt>
      <trkpt lat="42.60769" lon="-0.16704">
        <ele>1299.2</ele>
        <time>2017-07-30T09:03:06Z</time>
      </trkpt>
      <trkpt lat="42.60771" lon="-0.16707">
        <ele>1299.2</ele>
        <time>2017-07-30T09:03:08Z</time>
      </trkpt>
      <trkpt lat="42.60776" lon="-0.16704">
        <ele>1295.6</ele>
        <time>2017-07-30T09:03:10Z</time>
      </trkpt>
      <trkpt lat="42.6078" lon="-0.16702">
        <ele>1294.4</ele>
        <time>2017-07-30T09:03:12Z</time>
      </trkpt>
      <trkpt lat="42.60784" lon="-0.16706">
        <ele>1290.7</ele>
        <time>2017-07-30T09:03:14Z</time>
      </trkpt>
      <trkpt lat="42.60786" lon="-0.1671">
        <ele>1290.2</ele>
        <time>2017-07-30T09:03:16Z</time>
      </trkpt>
      <trkpt lat="42.60787" lon="-0.16716">
        <ele>1289.3</ele>
        <time>2017-07-30T09:03:18Z</time>
      </trkpt>
      <trkpt lat="42.60788" lon="-0.16722">
        <ele>1286.6</ele>
        <time>2017-07-30T09:03:20Z</time>
      </trkpt>
      <trkpt lat="42.60786" lon="-0.16726">
        <ele>1288.3</ele>
        <time>2017-07-30T09:03:23Z</time>
      </trkpt>
      <trkpt lat="42.60789" lon="-0.16726">
        <ele>1286.1</ele>
        <time>2017-07-30T09:03:28Z</time>
      </trkpt>
      <trkpt lat="42.60792" lon="-0.16728">
        <ele>1283.8</ele>
        <time>2017-07-30T09:03:33Z</time>
      </trkpt>
      <trkpt lat="42.6079" lon="-0.16731">
        <ele>1285.5</ele>
        <time>2017-07-30T09:03:38Z</time>
      </trkpt>
      <trkpt lat="42.60791" lon="-0.16734">
        <ele>1282.4</ele>
        <time>2017-07-30T09:03:44Z</time>
      </trkpt>
      <trkpt lat="42.60794" lon="-0.16735">
        <ele>1280.2</ele>
        <time>2017-07-30T09:03:48Z</time>
      </trkpt>
      <trkpt lat="42.60793" lon="-0.16739">
        <ele>1281.8</ele>
        <time>2017-07-30T09:03:54Z</time>
      </trkpt>
      <trkpt lat="42.60791" lon="-0.16742">
        <ele>1281.3</ele>
        <time>2017-07-30T09:03:59Z</time>
      </trkpt>
      <trkpt lat="42.60793" lon="-0.16745">
        <ele>1281.3</ele>
        <time>2017-07-30T09:04:03Z</time>
      </trkpt>
      <trkpt lat="42.60795" lon="-0.1675">
        <ele>1278.8</ele>
        <time>2017-07-30T09:04:08Z</time>
      </trkpt>
      <trkpt lat="42.60797" lon="-0.16753">
        <ele>1278.7</ele>
        <time>2017-07-30T09:04:10Z</time>
      </trkpt>
      <trkpt lat="42.60798" lon="-0.16758">
        <ele>1276.8</ele>
        <time>2017-07-30T09:04:12Z</time>
      </trkpt>
      <trkpt lat="42.60798" lon="-0.16762">
        <ele>1276.9</ele>
        <time>2017-07-30T09:04:14Z</time>
      </trkpt>
      <trkpt lat="42.60798" lon="-0.16766">
        <ele>1277.5</ele>
        <time>2017-07-30T09:04:16Z</time>
      </trkpt>
      <trkpt lat="42.60798" lon="-0.16771">
        <ele>1278</ele>
        <time>2017-07-30T09:04:18Z</time>
      </trkpt>
      <trkpt lat="42.60797" lon="-0.16776">
        <ele>1278.5</ele>
        <time>2017-07-30T09:04:20Z</time>
      </trkpt>
      <trkpt lat="42.60797" lon="-0.16782">
        <ele>1278.8</ele>
        <time>2017-07-30T09:04:22Z</time>
      </trkpt>
      <trkpt lat="42.60798" lon="-0.16788">
        <ele>1279</ele>
        <time>2017-07-30T09:04:24Z</time>
      </trkpt>
      <trkpt lat="42.60799" lon="-0.16795">
        <ele>1279.7</ele>
        <time>2017-07-30T09:04:26Z</time>
      </trkpt>
      <trkpt lat="42.608" lon="-0.168">
        <ele>1280.5</ele>
        <time>2017-07-30T09:04:28Z</time>
      </trkpt>
      <trkpt lat="42.60795" lon="-0.16802">
        <ele>1281.9</ele>
        <time>2017-07-30T09:04:34Z</time>
      </trkpt>
      <trkpt lat="42.60793" lon="-0.16804">
        <ele>1282.6</ele>
        <time>2017-07-30T09:04:38Z</time>
      </trkpt>
      <trkpt lat="42.6079" lon="-0.16809">
        <ele>1283.7</ele>
        <time>2017-07-30T09:04:45Z</time>
      </trkpt>
      <trkpt lat="42.608" lon="-0.16809">
        <ele>1278.9</ele>
        <time>2017-07-30T09:05:23Z</time>
      </trkpt>
      <trkpt lat="42.60804" lon="-0.1681">
        <ele>1277.2</ele>
        <time>2017-07-30T09:05:24Z</time>
      </trkpt>
      <trkpt lat="42.60808" lon="-0.16811">
        <ele>1277.6</ele>
        <time>2017-07-30T09:05:25Z</time>
      </trkpt>
      <trkpt lat="42.60812" lon="-0.16812">
        <ele>1277.4</ele>
        <time>2017-07-30T09:05:26Z</time>
      </trkpt>
      <trkpt lat="42.60815" lon="-0.16813">
        <ele>1277.3</ele>
        <time>2017-07-30T09:05:27Z</time>
      </trkpt>
      <trkpt lat="42.60818" lon="-0.16813">
        <ele>1277.4</ele>
        <time>2017-07-30T09:05:28Z</time>
      </trkpt>
      <trkpt lat="42.60823" lon="-0.16813">
        <ele>1278.3</ele>
        <time>2017-07-30T09:05:30Z</time>
      </trkpt>
      <trkpt lat="42.60826" lon="-0.16813">
        <ele>1278.9</ele>
        <time>2017-07-30T09:05:32Z</time>
      </trkpt>
      <trkpt lat="42.6083" lon="-0.16812">
        <ele>1279.7</ele>
        <time>2017-07-30T09:05:34Z</time>
      </trkpt>
      <trkpt lat="42.60834" lon="-0.16811">
        <ele>1280.5</ele>
        <time>2017-07-30T09:05:36Z</time>
      </trkpt>
      <trkpt lat="42.60838" lon="-0.16806">
        <ele>1281.3</ele>
        <time>2017-07-30T09:05:38Z</time>
      </trkpt>
      <trkpt lat="42.6084" lon="-0.16803">
        <ele>1280.4</ele>
        <time>2017-07-30T09:05:39Z</time>
      </trkpt>
      <trkpt lat="42.60842" lon="-0.168">
        <ele>1280.1</ele>
        <time>2017-07-30T09:05:40Z</time>
      </trkpt>
      <trkpt lat="42.60846" lon="-0.16795">
        <ele>1279.5</ele>
        <time>2017-07-30T09:05:42Z</time>
      </trkpt>
      <trkpt lat="42.6085" lon="-0.16793">
        <ele>1280</ele>
        <time>2017-07-30T09:05:43Z</time>
      </trkpt>
      <trkpt lat="42.60855" lon="-0.1679">
        <ele>1279.6</ele>
        <time>2017-07-30T09:05:44Z</time>
      </trkpt>
      <trkpt lat="42.60859" lon="-0.16788">
        <ele>1278.6</ele>
        <time>2017-07-30T09:05:45Z</time>
      </trkpt>
      <trkpt lat="42.60862" lon="-0.16786">
        <ele>1279.1</ele>
        <time>2017-07-30T09:05:46Z</time>
      </trkpt>
      <trkpt lat="42.60866" lon="-0.16784">
        <ele>1278.4</ele>
        <time>2017-07-30T09:05:47Z</time>
      </trkpt>
      <trkpt lat="42.6087" lon="-0.16782">
        <ele>1279.6</ele>
        <time>2017-07-30T09:05:48Z</time>
      </trkpt>
      <trkpt lat="42.60874" lon="-0.1678">
        <ele>1280.3</ele>
        <time>2017-07-30T09:05:49Z</time>
      </trkpt>
      <trkpt lat="42.60877" lon="-0.1678">
        <ele>1279.8</ele>
        <time>2017-07-30T09:05:50Z</time>
      </trkpt>
      <trkpt lat="42.6088" lon="-0.16779">
        <ele>1280.4</ele>
        <time>2017-07-30T09:05:51Z</time>
      </trkpt>
      <trkpt lat="42.60883" lon="-0.16778">
        <ele>1281.1</ele>
        <time>2017-07-30T09:05:52Z</time>
      </trkpt>
      <trkpt lat="42.60886" lon="-0.16777">
        <ele>1281.7</ele>
        <time>2017-07-30T09:05:53Z</time>
      </trkpt>
      <trkpt lat="42.60888" lon="-0.16775">
        <ele>1280.5</ele>
        <time>2017-07-30T09:05:54Z</time>
      </trkpt>
      <trkpt lat="42.6089" lon="-0.16772">
        <ele>1281.1</ele>
        <time>2017-07-30T09:05:55Z</time>
      </trkpt>
      <trkpt lat="42.60895" lon="-0.1677">
        <ele>1281.2</ele>
        <time>2017-07-30T09:05:57Z</time>
      </trkpt>
      <trkpt lat="42.60898" lon="-0.16771">
        <ele>1281.2</ele>
        <time>2017-07-30T09:05:58Z</time>
      </trkpt>
      <trkpt lat="42.60901" lon="-0.16771">
        <ele>1281.9</ele>
        <time>2017-07-30T09:05:59Z</time>
      </trkpt>
      <trkpt lat="42.60903" lon="-0.16768">
        <ele>1282.6</ele>
        <time>2017-07-30T09:06:00Z</time>
      </trkpt>
      <trkpt lat="42.60905" lon="-0.16765">
        <ele>1281.9</ele>
        <time>2017-07-30T09:06:01Z</time>
      </trkpt>
      <trkpt lat="42.60907" lon="-0.1676">
        <ele>1280.3</ele>
        <time>2017-07-30T09:06:02Z</time>
      </trkpt>
      <trkpt lat="42.60907" lon="-0.16756">
        <ele>1278.8</ele>
        <time>2017-07-30T09:06:03Z</time>
      </trkpt>
      <trkpt lat="42.60908" lon="-0.16752">
        <ele>1278.1</ele>
        <time>2017-07-30T09:06:04Z</time>
      </trkpt>
      <trkpt lat="42.60908" lon="-0.16748">
        <ele>1276.8</ele>
        <time>2017-07-30T09:06:05Z</time>
      </trkpt>
      <trkpt lat="42.60908" lon="-0.16745">
        <ele>1275.5</ele>
        <time>2017-07-30T09:06:06Z</time>
      </trkpt>
      <trkpt lat="42.60911" lon="-0.16739">
        <ele>1274.3</ele>
        <time>2017-07-30T09:06:08Z</time>
      </trkpt>
      <trkpt lat="42.60915" lon="-0.16735">
        <ele>1272.9</ele>
        <time>2017-07-30T09:06:10Z</time>
      </trkpt>
      <trkpt lat="42.60919" lon="-0.16733">
        <ele>1273.1</ele>
        <time>2017-07-30T09:06:12Z</time>
      </trkpt>
      <trkpt lat="42.60924" lon="-0.16731">
        <ele>1272</ele>
        <time>2017-07-30T09:06:14Z</time>
      </trkpt>
      <trkpt lat="42.60927" lon="-0.16728">
        <ele>1271.1</ele>
        <time>2017-07-30T09:06:16Z</time>
      </trkpt>
      <trkpt lat="42.6093" lon="-0.16726">
        <ele>1271</ele>
        <time>2017-07-30T09:06:18Z</time>
      </trkpt>
      <trkpt lat="42.60933" lon="-0.16723">
        <ele>1270.4</ele>
        <time>2017-07-30T09:06:21Z</time>
      </trkpt>
      <trkpt lat="42.60936" lon="-0.16723">
        <ele>1271.4</ele>
        <time>2017-07-30T09:06:24Z</time>
      </trkpt>
      <trkpt lat="42.60939" lon="-0.16721">
        <ele>1271.9</ele>
        <time>2017-07-30T09:06:30Z</time>
      </trkpt>
      <trkpt lat="42.60943" lon="-0.16721">
        <ele>1272.4</ele>
        <time>2017-07-30T09:06:32Z</time>
      </trkpt>
      <trkpt lat="42.60948" lon="-0.16719">
        <ele>1272.1</ele>
        <time>2017-07-30T09:06:34Z</time>
      </trkpt>
      <trkpt lat="42.60952" lon="-0.16718">
        <ele>1273.5</ele>
        <time>2017-07-30T09:06:36Z</time>
      </trkpt>
      <trkpt lat="42.60957" lon="-0.16715">
        <ele>1273.4</ele>
        <time>2017-07-30T09:06:38Z</time>
      </trkpt>
      <trkpt lat="42.60962" lon="-0.16713">
        <ele>1275.1</ele>
        <time>2017-07-30T09:06:40Z</time>
      </trkpt>
      <trkpt lat="42.60966" lon="-0.16711">
        <ele>1275</ele>
        <time>2017-07-30T09:06:42Z</time>
      </trkpt>
      <trkpt lat="42.6097" lon="-0.16708">
        <ele>1275.8</ele>
        <time>2017-07-30T09:06:44Z</time>
      </trkpt>
      <trkpt lat="42.60975" lon="-0.16705">
        <ele>1276.2</ele>
        <time>2017-07-30T09:06:46Z</time>
      </trkpt>
      <trkpt lat="42.60979" lon="-0.16701">
        <ele>1275.9</ele>
        <time>2017-07-30T09:06:48Z</time>
      </trkpt>
      <trkpt lat="42.60983" lon="-0.16699">
        <ele>1276.7</ele>
        <time>2017-07-30T09:06:50Z</time>
      </trkpt>
      <trkpt lat="42.60986" lon="-0.16695">
        <ele>1276.4</ele>
        <time>2017-07-30T09:06:52Z</time>
      </trkpt>
      <trkpt lat="42.60988" lon="-0.16693">
        <ele>1276.1</ele>
        <time>2017-07-30T09:06:53Z</time>
      </trkpt>
      <trkpt lat="42.6099" lon="-0.16691">
        <ele>1276.9</ele>
        <time>2017-07-30T09:06:54Z</time>
      </trkpt>
      <trkpt lat="42.60992" lon="-0.16688">
        <ele>1275.4</ele>
        <time>2017-07-30T09:06:55Z</time>
      </trkpt>
      <trkpt lat="42.60995" lon="-0.16685">
        <ele>1274.5</ele>
        <time>2017-07-30T09:06:56Z</time>
      </trkpt>
      <trkpt lat="42.60999" lon="-0.16682">
        <ele>1275.8</ele>
        <time>2017-07-30T09:06:57Z</time>
      </trkpt>
      <trkpt lat="42.61004" lon="-0.16679">
        <ele>1274.5</ele>
        <time>2017-07-30T09:06:58Z</time>
      </trkpt>
      <trkpt lat="42.61009" lon="-0.16675">
        <ele>1273.8</ele>
        <time>2017-07-30T09:06:59Z</time>
      </trkpt>
      <trkpt lat="42.61014" lon="-0.16672">
        <ele>1272.5</ele>
        <time>2017-07-30T09:07:00Z</time>
      </trkpt>
      <trkpt lat="42.61019" lon="-0.16668">
        <ele>1273.9</ele>
        <time>2017-07-30T09:07:01Z</time>
      </trkpt>
      <trkpt lat="42.61024" lon="-0.16665">
        <ele>1272.7</ele>
        <time>2017-07-30T09:07:02Z</time>
      </trkpt>
      <trkpt lat="42.61029" lon="-0.16662">
        <ele>1272.2</ele>
        <time>2017-07-30T09:07:03Z</time>
      </trkpt>
      <trkpt lat="42.61033" lon="-0.1666">
        <ele>1272.9</ele>
        <time>2017-07-30T09:07:04Z</time>
      </trkpt>
      <trkpt lat="42.61037" lon="-0.16659">
        <ele>1271.9</ele>
        <time>2017-07-30T09:07:06Z</time>
      </trkpt>
      <trkpt lat="42.6104" lon="-0.16659">
        <ele>1272.8</ele>
        <time>2017-07-30T09:07:08Z</time>
      </trkpt>
      <trkpt lat="42.61044" lon="-0.16659">
        <ele>1274.6</ele>
        <time>2017-07-30T09:07:10Z</time>
      </trkpt>
      <trkpt lat="42.61049" lon="-0.16658">
        <ele>1275.5</ele>
        <time>2017-07-30T09:07:12Z</time>
      </trkpt>
      <trkpt lat="42.61053" lon="-0.16657">
        <ele>1277</ele>
        <time>2017-07-30T09:07:14Z</time>
      </trkpt>
      <trkpt lat="42.61057" lon="-0.16655">
        <ele>1276.1</ele>
        <time>2017-07-30T09:07:17Z</time>
      </trkpt>
      <trkpt lat="42.6106" lon="-0.16653">
        <ele>1276.7</ele>
        <time>2017-07-30T09:07:19Z</time>
      </trkpt>
      <trkpt lat="42.61063" lon="-0.16649">
        <ele>1275.8</ele>
        <time>2017-07-30T09:07:21Z</time>
      </trkpt>
      <trkpt lat="42.61065" lon="-0.16646">
        <ele>1274.2</ele>
        <time>2017-07-30T09:07:22Z</time>
      </trkpt>
      <trkpt lat="42.61067" lon="-0.16643">
        <ele>1273.5</ele>
        <time>2017-07-30T09:07:23Z</time>
      </trkpt>
      <trkpt lat="42.6107" lon="-0.16637">
        <ele>1272.9</ele>
        <time>2017-07-30T09:07:25Z</time>
      </trkpt>
      <trkpt lat="42.61072" lon="-0.1663">
        <ele>1272.1</ele>
        <time>2017-07-30T09:07:27Z</time>
      </trkpt>
      <trkpt lat="42.61074" lon="-0.16625">
        <ele>1269</ele>
        <time>2017-07-30T09:07:28Z</time>
      </trkpt>
      <trkpt lat="42.61075" lon="-0.1662">
        <ele>1267.4</ele>
        <time>2017-07-30T09:07:29Z</time>
      </trkpt>
      <trkpt lat="42.61077" lon="-0.16615">
        <ele>1266.9</ele>
        <time>2017-07-30T09:07:30Z</time>
      </trkpt>
      <trkpt lat="42.61079" lon="-0.16611">
        <ele>1266.6</ele>
        <time>2017-07-30T09:07:31Z</time>
      </trkpt>
      <trkpt lat="42.61082" lon="-0.16608">
        <ele>1266.1</ele>
        <time>2017-07-30T09:07:32Z</time>
      </trkpt>
      <trkpt lat="42.61084" lon="-0.16605">
        <ele>1266</ele>
        <time>2017-07-30T09:07:33Z</time>
      </trkpt>
      <trkpt lat="42.61087" lon="-0.16602">
        <ele>1265.4</ele>
        <time>2017-07-30T09:07:34Z</time>
      </trkpt>
      <trkpt lat="42.6109" lon="-0.16599">
        <ele>1264.6</ele>
        <time>2017-07-30T09:07:35Z</time>
      </trkpt>
      <trkpt lat="42.61093" lon="-0.16596">
        <ele>1265.3</ele>
        <time>2017-07-30T09:07:36Z</time>
      </trkpt>
      <trkpt lat="42.61096" lon="-0.16593">
        <ele>1264.3</ele>
        <time>2017-07-30T09:07:37Z</time>
      </trkpt>
      <trkpt lat="42.61098" lon="-0.1659">
        <ele>1263.4</ele>
        <time>2017-07-30T09:07:38Z</time>
      </trkpt>
      <trkpt lat="42.61101" lon="-0.16587">
        <ele>1262.5</ele>
        <time>2017-07-30T09:07:39Z</time>
      </trkpt>
      <trkpt lat="42.61103" lon="-0.16583">
        <ele>1263.1</ele>
        <time>2017-07-30T09:07:40Z</time>
      </trkpt>
      <trkpt lat="42.61106" lon="-0.16579">
        <ele>1261.7</ele>
        <time>2017-07-30T09:07:41Z</time>
      </trkpt>
      <trkpt lat="42.61108" lon="-0.16576">
        <ele>1261.1</ele>
        <time>2017-07-30T09:07:42Z</time>
      </trkpt>
      <trkpt lat="42.61111" lon="-0.16573">
        <ele>1260.5</ele>
        <time>2017-07-30T09:07:43Z</time>
      </trkpt>
      <trkpt lat="42.61114" lon="-0.1657">
        <ele>1261.2</ele>
        <time>2017-07-30T09:07:45Z</time>
      </trkpt>
      <trkpt lat="42.61118" lon="-0.16569">
        <ele>1260.9</ele>
        <time>2017-07-30T09:07:47Z</time>
      </trkpt>
      <trkpt lat="42.61122" lon="-0.16568">
        <ele>1261.9</ele>
        <time>2017-07-30T09:07:49Z</time>
      </trkpt>
      <trkpt lat="42.61127" lon="-0.16566">
        <ele>1264.2</ele>
        <time>2017-07-30T09:07:51Z</time>
      </trkpt>
      <trkpt lat="42.61131" lon="-0.16563">
        <ele>1264.4</ele>
        <time>2017-07-30T09:07:53Z</time>
      </trkpt>
      <trkpt lat="42.61135" lon="-0.16558">
        <ele>1264.7</ele>
        <time>2017-07-30T09:07:55Z</time>
      </trkpt>
      <trkpt lat="42.61137" lon="-0.16552">
        <ele>1264.9</ele>
        <time>2017-07-30T09:07:57Z</time>
      </trkpt>
      <trkpt lat="42.61138" lon="-0.16547">
        <ele>1265.5</ele>
        <time>2017-07-30T09:07:59Z</time>
      </trkpt>
      <trkpt lat="42.6114" lon="-0.16543">
        <ele>1265</ele>
        <time>2017-07-30T09:08:01Z</time>
      </trkpt>
      <trkpt lat="42.61142" lon="-0.16538">
        <ele>1265.6</ele>
        <time>2017-07-30T09:08:03Z</time>
      </trkpt>
      <trkpt lat="42.61144" lon="-0.16532">
        <ele>1265.1</ele>
        <time>2017-07-30T09:08:05Z</time>
      </trkpt>
      <trkpt lat="42.61146" lon="-0.16526">
        <ele>1265.2</ele>
        <time>2017-07-30T09:08:07Z</time>
      </trkpt>
      <trkpt lat="42.61148" lon="-0.16521">
        <ele>1265.6</ele>
        <time>2017-07-30T09:08:09Z</time>
      </trkpt>
      <trkpt lat="42.6115" lon="-0.16515">
        <ele>1264.6</ele>
        <time>2017-07-30T09:08:11Z</time>
      </trkpt>
      <trkpt lat="42.61151" lon="-0.16511">
        <ele>1264.6</ele>
        <time>2017-07-30T09:08:13Z</time>
      </trkpt>
      <trkpt lat="42.61153" lon="-0.16505">
        <ele>1262.3</ele>
        <time>2017-07-30T09:08:15Z</time>
      </trkpt>
      <trkpt lat="42.61154" lon="-0.16501">
        <ele>1263.4</ele>
        <time>2017-07-30T09:08:16Z</time>
      </trkpt>
      <trkpt lat="42.61155" lon="-0.16498">
        <ele>1262.4</ele>
        <time>2017-07-30T09:08:17Z</time>
      </trkpt>
      <trkpt lat="42.61157" lon="-0.16494">
        <ele>1261.3</ele>
        <time>2017-07-30T09:08:18Z</time>
      </trkpt>
      <trkpt lat="42.61159" lon="-0.1649">
        <ele>1261.4</ele>
        <time>2017-07-30T09:08:19Z</time>
      </trkpt>
      <trkpt lat="42.6116" lon="-0.16487">
        <ele>1260.2</ele>
        <time>2017-07-30T09:08:20Z</time>
      </trkpt>
      <trkpt lat="42.61162" lon="-0.16484">
        <ele>1261.5</ele>
        <time>2017-07-30T09:08:21Z</time>
      </trkpt>
      <trkpt lat="42.61164" lon="-0.16481">
        <ele>1261.5</ele>
        <time>2017-07-30T09:08:22Z</time>
      </trkpt>
      <trkpt lat="42.61166" lon="-0.16478">
        <ele>1260.5</ele>
        <time>2017-07-30T09:08:23Z</time>
      </trkpt>
      <trkpt lat="42.61169" lon="-0.16475">
        <ele>1260.7</ele>
        <time>2017-07-30T09:08:24Z</time>
      </trkpt>
      <trkpt lat="42.61172" lon="-0.16472">
        <ele>1261.9</ele>
        <time>2017-07-30T09:08:25Z</time>
      </trkpt>
      <trkpt lat="42.61175" lon="-0.16471">
        <ele>1262.3</ele>
        <time>2017-07-30T09:08:26Z</time>
      </trkpt>
      <trkpt lat="42.6118" lon="-0.16468">
        <ele>1265</ele>
        <time>2017-07-30T09:08:28Z</time>
      </trkpt>
      <trkpt lat="42.61185" lon="-0.16466">
        <ele>1265.3</ele>
        <time>2017-07-30T09:08:30Z</time>
      </trkpt>
      <trkpt lat="42.61189" lon="-0.16464">
        <ele>1266.6</ele>
        <time>2017-07-30T09:08:32Z</time>
      </trkpt>
      <trkpt lat="42.61193" lon="-0.16462">
        <ele>1268</ele>
        <time>2017-07-30T09:08:34Z</time>
      </trkpt>
      <trkpt lat="42.61197" lon="-0.1646">
        <ele>1269</ele>
        <time>2017-07-30T09:08:36Z</time>
      </trkpt>
      <trkpt lat="42.61201" lon="-0.16458">
        <ele>1270.3</ele>
        <time>2017-07-30T09:08:38Z</time>
      </trkpt>
      <trkpt lat="42.61204" lon="-0.16456">
        <ele>1270.2</ele>
        <time>2017-07-30T09:08:40Z</time>
      </trkpt>
      <trkpt lat="42.61208" lon="-0.16453">
        <ele>1270.4</ele>
        <time>2017-07-30T09:08:42Z</time>
      </trkpt>
      <trkpt lat="42.6121" lon="-0.1645">
        <ele>1271.5</ele>
        <time>2017-07-30T09:08:45Z</time>
      </trkpt>
      <trkpt lat="42.61213" lon="-0.16448">
        <ele>1271.4</ele>
        <time>2017-07-30T09:08:47Z</time>
      </trkpt>
      <trkpt lat="42.61217" lon="-0.16448">
        <ele>1273</ele>
        <time>2017-07-30T09:08:49Z</time>
      </trkpt>
      <trkpt lat="42.61221" lon="-0.16446">
        <ele>1273.5</ele>
        <time>2017-07-30T09:08:51Z</time>
      </trkpt>
      <trkpt lat="42.61225" lon="-0.16442">
        <ele>1273</ele>
        <time>2017-07-30T09:08:53Z</time>
      </trkpt>
      <trkpt lat="42.61229" lon="-0.16438">
        <ele>1272.2</ele>
        <time>2017-07-30T09:08:55Z</time>
      </trkpt>
      <trkpt lat="42.61231" lon="-0.16435">
        <ele>1271.3</ele>
        <time>2017-07-30T09:08:56Z</time>
      </trkpt>
      <trkpt lat="42.61233" lon="-0.16432">
        <ele>1270.4</ele>
        <time>2017-07-30T09:08:57Z</time>
      </trkpt>
      <trkpt lat="42.61235" lon="-0.16429">
        <ele>1270.3</ele>
        <time>2017-07-30T09:08:58Z</time>
      </trkpt>
      <trkpt lat="42.61239" lon="-0.16424">
        <ele>1269.6</ele>
        <time>2017-07-30T09:09:00Z</time>
      </trkpt>
      <trkpt lat="42.61242" lon="-0.16419">
        <ele>1268</ele>
        <time>2017-07-30T09:09:02Z</time>
      </trkpt>
      <trkpt lat="42.61245" lon="-0.16414">
        <ele>1267.8</ele>
        <time>2017-07-30T09:09:04Z</time>
      </trkpt>
      <trkpt lat="42.61247" lon="-0.16411">
        <ele>1268.7</ele>
        <time>2017-07-30T09:09:05Z</time>
      </trkpt>
      <trkpt lat="42.61249" lon="-0.16407">
        <ele>1268.4</ele>
        <time>2017-07-30T09:09:06Z</time>
      </trkpt>
      <trkpt lat="42.61252" lon="-0.16404">
        <ele>1267</ele>
        <time>2017-07-30T09:09:07Z</time>
      </trkpt>
      <trkpt lat="42.61254" lon="-0.16401">
        <ele>1266.4</ele>
        <time>2017-07-30T09:09:08Z</time>
      </trkpt>
      <trkpt lat="42.61257" lon="-0.16398">
        <ele>1267.2</ele>
        <time>2017-07-30T09:09:09Z</time>
      </trkpt>
      <trkpt lat="42.6126" lon="-0.16397">
        <ele>1266.6</ele>
        <time>2017-07-30T09:09:10Z</time>
      </trkpt>
      <trkpt lat="42.61262" lon="-0.16394">
        <ele>1267.4</ele>
        <time>2017-07-30T09:09:11Z</time>
      </trkpt>
      <trkpt lat="42.61264" lon="-0.16391">
        <ele>1267</ele>
        <time>2017-07-30T09:09:12Z</time>
      </trkpt>
      <trkpt lat="42.61266" lon="-0.16388">
        <ele>1265.9</ele>
        <time>2017-07-30T09:09:13Z</time>
      </trkpt>
      <trkpt lat="42.61269" lon="-0.16384">
        <ele>1265.5</ele>
        <time>2017-07-30T09:09:14Z</time>
      </trkpt>
      <trkpt lat="42.61271" lon="-0.16381">
        <ele>1266.1</ele>
        <time>2017-07-30T09:09:15Z</time>
      </trkpt>
      <trkpt lat="42.61273" lon="-0.16378">
        <ele>1264.8</ele>
        <time>2017-07-30T09:09:16Z</time>
      </trkpt>
      <trkpt lat="42.61276" lon="-0.16375">
        <ele>1264</ele>
        <time>2017-07-30T09:09:17Z</time>
      </trkpt>
      <trkpt lat="42.61278" lon="-0.16371">
        <ele>1263.1</ele>
        <time>2017-07-30T09:09:18Z</time>
      </trkpt>
      <trkpt lat="42.61281" lon="-0.16368">
        <ele>1262.3</ele>
        <time>2017-07-30T09:09:19Z</time>
      </trkpt>
      <trkpt lat="42.61283" lon="-0.16364">
        <ele>1262.2</ele>
        <time>2017-07-30T09:09:20Z</time>
      </trkpt>
      <trkpt lat="42.61285" lon="-0.1636">
        <ele>1261.4</ele>
        <time>2017-07-30T09:09:21Z</time>
      </trkpt>
      <trkpt lat="42.61288" lon="-0.16357">
        <ele>1260.7</ele>
        <time>2017-07-30T09:09:22Z</time>
      </trkpt>
      <trkpt lat="42.6129" lon="-0.16354">
        <ele>1259.9</ele>
        <time>2017-07-30T09:09:23Z</time>
      </trkpt>
      <trkpt lat="42.61293" lon="-0.16352">
        <ele>1260.1</ele>
        <time>2017-07-30T09:09:24Z</time>
      </trkpt>
      <trkpt lat="42.61295" lon="-0.16349">
        <ele>1258.9</ele>
        <time>2017-07-30T09:09:25Z</time>
      </trkpt>
      <trkpt lat="42.61298" lon="-0.16346">
        <ele>1257.9</ele>
        <time>2017-07-30T09:09:26Z</time>
      </trkpt>
      <trkpt lat="42.613" lon="-0.16344">
        <ele>1258.1</ele>
        <time>2017-07-30T09:09:27Z</time>
      </trkpt>
      <trkpt lat="42.61302" lon="-0.1634">
        <ele>1257.1</ele>
        <time>2017-07-30T09:09:29Z</time>
      </trkpt>
      <trkpt lat="42.61306" lon="-0.16336">
        <ele>1256.2</ele>
        <time>2017-07-30T09:09:31Z</time>
      </trkpt>
      <trkpt lat="42.61308" lon="-0.16333">
        <ele>1255.1</ele>
        <time>2017-07-30T09:09:35Z</time>
      </trkpt>
      <trkpt lat="42.61311" lon="-0.16329">
        <ele>1254</ele>
        <time>2017-07-30T09:09:37Z</time>
      </trkpt>
      <trkpt lat="42.61314" lon="-0.16325">
        <ele>1252.7</ele>
        <time>2017-07-30T09:09:39Z</time>
      </trkpt>
      <trkpt lat="42.61318" lon="-0.16322">
        <ele>1252.6</ele>
        <time>2017-07-30T09:09:41Z</time>
      </trkpt>
      <trkpt lat="42.61322" lon="-0.1632">
        <ele>1250.8</ele>
        <time>2017-07-30T09:09:43Z</time>
      </trkpt>
      <trkpt lat="42.61324" lon="-0.1632">
        <ele>1250.7</ele>
        <time>2017-07-30T09:09:44Z</time>
      </trkpt>
      <trkpt lat="42.61327" lon="-0.16321">
        <ele>1251.5</ele>
        <time>2017-07-30T09:09:45Z</time>
      </trkpt>
      <trkpt lat="42.6133" lon="-0.16323">
        <ele>1251</ele>
        <time>2017-07-30T09:09:46Z</time>
      </trkpt>
      <trkpt lat="42.61332" lon="-0.16325">
        <ele>1250.6</ele>
        <time>2017-07-30T09:09:47Z</time>
      </trkpt>
      <trkpt lat="42.61334" lon="-0.16328">
        <ele>1251.1</ele>
        <time>2017-07-30T09:09:48Z</time>
      </trkpt>
      <trkpt lat="42.61336" lon="-0.16331">
        <ele>1252</ele>
        <time>2017-07-30T09:09:49Z</time>
      </trkpt>
      <trkpt lat="42.61339" lon="-0.16336">
        <ele>1252.2</ele>
        <time>2017-07-30T09:09:50Z</time>
      </trkpt>
      <trkpt lat="42.61342" lon="-0.1634">
        <ele>1252.2</ele>
        <time>2017-07-30T09:09:51Z</time>
      </trkpt>
      <trkpt lat="42.61344" lon="-0.16345">
        <ele>1252.2</ele>
        <time>2017-07-30T09:09:52Z</time>
      </trkpt>
      <trkpt lat="42.61346" lon="-0.16351">
        <ele>1253.1</ele>
        <time>2017-07-30T09:09:53Z</time>
      </trkpt>
      <trkpt lat="42.61348" lon="-0.16356">
        <ele>1253.7</ele>
        <time>2017-07-30T09:09:54Z</time>
      </trkpt>
      <trkpt lat="42.61349" lon="-0.16362">
        <ele>1254.4</ele>
        <time>2017-07-30T09:09:55Z</time>
      </trkpt>
      <trkpt lat="42.61351" lon="-0.16368">
        <ele>1253.5</ele>
        <time>2017-07-30T09:09:56Z</time>
      </trkpt>
      <trkpt lat="42.61352" lon="-0.16373">
        <ele>1255.2</ele>
        <time>2017-07-30T09:09:57Z</time>
      </trkpt>
      <trkpt lat="42.61353" lon="-0.16378">
        <ele>1254.4</ele>
        <time>2017-07-30T09:09:58Z</time>
      </trkpt>
      <trkpt lat="42.61355" lon="-0.16383">
        <ele>1255.2</ele>
        <time>2017-07-30T09:09:59Z</time>
      </trkpt>
      <trkpt lat="42.61357" lon="-0.16389">
        <ele>1254.4</ele>
        <time>2017-07-30T09:10:00Z</time>
      </trkpt>
      <trkpt lat="42.61359" lon="-0.16394">
        <ele>1256.2</ele>
        <time>2017-07-30T09:10:01Z</time>
      </trkpt>
      <trkpt lat="42.61361" lon="-0.16399">
        <ele>1255.8</ele>
        <time>2017-07-30T09:10:02Z</time>
      </trkpt>
      <trkpt lat="42.61363" lon="-0.16405">
        <ele>1255.4</ele>
        <time>2017-07-30T09:10:03Z</time>
      </trkpt>
      <trkpt lat="42.61365" lon="-0.16411">
        <ele>1257.7</ele>
        <time>2017-07-30T09:10:04Z</time>
      </trkpt>
      <trkpt lat="42.61368" lon="-0.16417">
        <ele>1256.9</ele>
        <time>2017-07-30T09:10:05Z</time>
      </trkpt>
      <trkpt lat="42.6137" lon="-0.16422">
        <ele>1256</ele>
        <time>2017-07-30T09:10:06Z</time>
      </trkpt>
      <trkpt lat="42.61373" lon="-0.16427">
        <ele>1254.8</ele>
        <time>2017-07-30T09:10:07Z</time>
      </trkpt>
      <trkpt lat="42.61375" lon="-0.16431">
        <ele>1253.6</ele>
        <time>2017-07-30T09:10:08Z</time>
      </trkpt>
      <trkpt lat="42.61377" lon="-0.16436">
        <ele>1254.3</ele>
        <time>2017-07-30T09:10:09Z</time>
      </trkpt>
      <trkpt lat="42.6138" lon="-0.16441">
        <ele>1253.6</ele>
        <time>2017-07-30T09:10:10Z</time>
      </trkpt>
      <trkpt lat="42.61382" lon="-0.16447">
        <ele>1252.2</ele>
        <time>2017-07-30T09:10:11Z</time>
      </trkpt>
      <trkpt lat="42.61383" lon="-0.16452">
        <ele>1253</ele>
        <time>2017-07-30T09:10:12Z</time>
      </trkpt>
      <trkpt lat="42.61384" lon="-0.16456">
        <ele>1254</ele>
        <time>2017-07-30T09:10:13Z</time>
      </trkpt>
      <trkpt lat="42.61384" lon="-0.16461">
        <ele>1255</ele>
        <time>2017-07-30T09:10:15Z</time>
      </trkpt>
      <trkpt lat="42.61384" lon="-0.16465">
        <ele>1256</ele>
        <time>2017-07-30T09:10:16Z</time>
      </trkpt>
      <trkpt lat="42.61383" lon="-0.16469">
        <ele>1256.9</ele>
        <time>2017-07-30T09:10:17Z</time>
      </trkpt>
      <trkpt lat="42.61383" lon="-0.16473">
        <ele>1257.7</ele>
        <time>2017-07-30T09:10:18Z</time>
      </trkpt>
      <trkpt lat="42.61383" lon="-0.16477">
        <ele>1258.5</ele>
        <time>2017-07-30T09:10:19Z</time>
      </trkpt>
      <trkpt lat="42.61384" lon="-0.1648">
        <ele>1259.2</ele>
        <time>2017-07-30T09:10:20Z</time>
      </trkpt>
      <trkpt lat="42.61386" lon="-0.16484">
        <ele>1257.1</ele>
        <time>2017-07-30T09:10:21Z</time>
      </trkpt>
      <trkpt lat="42.61388" lon="-0.1649">
        <ele>1256.9</ele>
        <time>2017-07-30T09:10:23Z</time>
      </trkpt>
      <trkpt lat="42.61389" lon="-0.16493">
        <ele>1257.5</ele>
        <time>2017-07-30T09:10:24Z</time>
      </trkpt>
      <trkpt lat="42.6139" lon="-0.16497">
        <ele>1258</ele>
        <time>2017-07-30T09:10:25Z</time>
      </trkpt>
      <trkpt lat="42.61392" lon="-0.16501">
        <ele>1256.2</ele>
        <time>2017-07-30T09:10:26Z</time>
      </trkpt>
      <trkpt lat="42.61393" lon="-0.16505">
        <ele>1256.5</ele>
        <time>2017-07-30T09:10:27Z</time>
      </trkpt>
      <trkpt lat="42.61394" lon="-0.16509">
        <ele>1256.8</ele>
        <time>2017-07-30T09:10:28Z</time>
      </trkpt>
      <trkpt lat="42.61394" lon="-0.16513">
        <ele>1255.4</ele>
        <time>2017-07-30T09:10:29Z</time>
      </trkpt>
      <trkpt lat="42.61395" lon="-0.16517">
        <ele>1255.6</ele>
        <time>2017-07-30T09:10:30Z</time>
      </trkpt>
      <trkpt lat="42.61396" lon="-0.16521">
        <ele>1255.8</ele>
        <time>2017-07-30T09:10:31Z</time>
      </trkpt>
      <trkpt lat="42.61396" lon="-0.16524">
        <ele>1255.9</ele>
        <time>2017-07-30T09:10:32Z</time>
      </trkpt>
      <trkpt lat="42.61398" lon="-0.16529">
        <ele>1254.3</ele>
        <time>2017-07-30T09:10:34Z</time>
      </trkpt>
      <trkpt lat="42.614" lon="-0.16532">
        <ele>1254.6</ele>
        <time>2017-07-30T09:10:35Z</time>
      </trkpt>
      <trkpt lat="42.61401" lon="-0.16536">
        <ele>1253.1</ele>
        <time>2017-07-30T09:10:36Z</time>
      </trkpt>
      <trkpt lat="42.61403" lon="-0.16541">
        <ele>1253.5</ele>
        <time>2017-07-30T09:10:37Z</time>
      </trkpt>
      <trkpt lat="42.61404" lon="-0.16546">
        <ele>1252</ele>
        <time>2017-07-30T09:10:38Z</time>
      </trkpt>
      <trkpt lat="42.61407" lon="-0.16551">
        <ele>1250.6</ele>
        <time>2017-07-30T09:10:39Z</time>
      </trkpt>
      <trkpt lat="42.6141" lon="-0.16557">
        <ele>1250.9</ele>
        <time>2017-07-30T09:10:40Z</time>
      </trkpt>
      <trkpt lat="42.61413" lon="-0.16562">
        <ele>1250.5</ele>
        <time>2017-07-30T09:10:41Z</time>
      </trkpt>
      <trkpt lat="42.61416" lon="-0.16566">
        <ele>1250.2</ele>
        <time>2017-07-30T09:10:42Z</time>
      </trkpt>
      <trkpt lat="42.61419" lon="-0.16571">
        <ele>1250.2</ele>
        <time>2017-07-30T09:10:43Z</time>
      </trkpt>
      <trkpt lat="42.61422" lon="-0.16577">
        <ele>1250</ele>
        <time>2017-07-30T09:10:44Z</time>
      </trkpt>
      <trkpt lat="42.61425" lon="-0.16582">
        <ele>1249.2</ele>
        <time>2017-07-30T09:10:45Z</time>
      </trkpt>
      <trkpt lat="42.61429" lon="-0.16589">
        <ele>1248.3</ele>
        <time>2017-07-30T09:10:46Z</time>
      </trkpt>
      <trkpt lat="42.61432" lon="-0.16598">
        <ele>1245.1</ele>
        <time>2017-07-30T09:10:47Z</time>
      </trkpt>
      <trkpt lat="42.61434" lon="-0.16605">
        <ele>1246.9</ele>
        <time>2017-07-30T09:10:48Z</time>
      </trkpt>
      <trkpt lat="42.61435" lon="-0.16611">
        <ele>1247.8</ele>
        <time>2017-07-30T09:10:49Z</time>
      </trkpt>
      <trkpt lat="42.61435" lon="-0.16616">
        <ele>1247</ele>
        <time>2017-07-30T09:10:50Z</time>
      </trkpt>
      <trkpt lat="42.61436" lon="-0.1662">
        <ele>1248.3</ele>
        <time>2017-07-30T09:10:51Z</time>
      </trkpt>
      <trkpt lat="42.61436" lon="-0.16624">
        <ele>1249.8</ele>
        <time>2017-07-30T09:10:52Z</time>
      </trkpt>
      <trkpt lat="42.61437" lon="-0.16628">
        <ele>1251.4</ele>
        <time>2017-07-30T09:10:53Z</time>
      </trkpt>
      <trkpt lat="42.61438" lon="-0.16632">
        <ele>1253</ele>
        <time>2017-07-30T09:10:54Z</time>
      </trkpt>
      <trkpt lat="42.61439" lon="-0.16636">
        <ele>1252.3</ele>
        <time>2017-07-30T09:10:55Z</time>
      </trkpt>
      <trkpt lat="42.6144" lon="-0.16641">
        <ele>1253.6</ele>
        <time>2017-07-30T09:10:57Z</time>
      </trkpt>
      <trkpt lat="42.61444" lon="-0.16644">
        <ele>1253</ele>
        <time>2017-07-30T09:10:59Z</time>
      </trkpt>
      <trkpt lat="42.61447" lon="-0.16645">
        <ele>1251</ele>
        <time>2017-07-30T09:11:00Z</time>
      </trkpt>
      <trkpt lat="42.6145" lon="-0.16646">
        <ele>1248.7</ele>
        <time>2017-07-30T09:11:01Z</time>
      </trkpt>
      <trkpt lat="42.61452" lon="-0.16647">
        <ele>1246.2</ele>
        <time>2017-07-30T09:11:02Z</time>
      </trkpt>
      <trkpt lat="42.61455" lon="-0.16647">
        <ele>1245.2</ele>
        <time>2017-07-30T09:11:03Z</time>
      </trkpt>
      <trkpt lat="42.6146" lon="-0.16649">
        <ele>1239.8</ele>
        <time>2017-07-30T09:11:05Z</time>
      </trkpt>
      <trkpt lat="42.61463" lon="-0.16651">
        <ele>1239.7</ele>
        <time>2017-07-30T09:11:06Z</time>
      </trkpt>
      <trkpt lat="42.61466" lon="-0.16654">
        <ele>1238.5</ele>
        <time>2017-07-30T09:11:07Z</time>
      </trkpt>
      <trkpt lat="42.61469" lon="-0.16658">
        <ele>1237.2</ele>
        <time>2017-07-30T09:11:08Z</time>
      </trkpt>
      <trkpt lat="42.61471" lon="-0.16663">
        <ele>1235.9</ele>
        <time>2017-07-30T09:11:09Z</time>
      </trkpt>
      <trkpt lat="42.61473" lon="-0.16667">
        <ele>1234.5</ele>
        <time>2017-07-30T09:11:10Z</time>
      </trkpt>
      <trkpt lat="42.61475" lon="-0.16673">
        <ele>1235.4</ele>
        <time>2017-07-30T09:11:11Z</time>
      </trkpt>
      <trkpt lat="42.61478" lon="-0.16678">
        <ele>1235.2</ele>
        <time>2017-07-30T09:11:12Z</time>
      </trkpt>
      <trkpt lat="42.6148" lon="-0.16684">
        <ele>1233.8</ele>
        <time>2017-07-30T09:11:13Z</time>
      </trkpt>
      <trkpt lat="42.61483" lon="-0.16689">
        <ele>1232.2</ele>
        <time>2017-07-30T09:11:14Z</time>
      </trkpt>
      <trkpt lat="42.61485" lon="-0.16694">
        <ele>1234.1</ele>
        <time>2017-07-30T09:11:15Z</time>
      </trkpt>
      <trkpt lat="42.61486" lon="-0.16698">
        <ele>1232.1</ele>
        <time>2017-07-30T09:11:16Z</time>
      </trkpt>
      <trkpt lat="42.61487" lon="-0.16702">
        <ele>1232</ele>
        <time>2017-07-30T09:11:17Z</time>
      </trkpt>
      <trkpt lat="42.61488" lon="-0.16706">
        <ele>1233</ele>
        <time>2017-07-30T09:11:18Z</time>
      </trkpt>
      <trkpt lat="42.6149" lon="-0.1671">
        <ele>1231</ele>
        <time>2017-07-30T09:11:19Z</time>
      </trkpt>
      <trkpt lat="42.61491" lon="-0.16714">
        <ele>1231.9</ele>
        <time>2017-07-30T09:11:20Z</time>
      </trkpt>
      <trkpt lat="42.61493" lon="-0.1672">
        <ele>1229.9</ele>
        <time>2017-07-30T09:11:21Z</time>
      </trkpt>
      <trkpt lat="42.61496" lon="-0.16725">
        <ele>1228.7</ele>
        <time>2017-07-30T09:11:22Z</time>
      </trkpt>
      <trkpt lat="42.61499" lon="-0.1673">
        <ele>1226.8</ele>
        <time>2017-07-30T09:11:23Z</time>
      </trkpt>
      <trkpt lat="42.61502" lon="-0.16734">
        <ele>1224.9</ele>
        <time>2017-07-30T09:11:24Z</time>
      </trkpt>
      <trkpt lat="42.61504" lon="-0.16737">
        <ele>1224.9</ele>
        <time>2017-07-30T09:11:25Z</time>
      </trkpt>
      <trkpt lat="42.61506" lon="-0.16739">
        <ele>1223</ele>
        <time>2017-07-30T09:11:26Z</time>
      </trkpt>
      <trkpt lat="42.61508" lon="-0.16742">
        <ele>1221</ele>
        <time>2017-07-30T09:11:27Z</time>
      </trkpt>
      <trkpt lat="42.6151" lon="-0.16745">
        <ele>1220.9</ele>
        <time>2017-07-30T09:11:28Z</time>
      </trkpt>
      <trkpt lat="42.61512" lon="-0.16749">
        <ele>1219</ele>
        <time>2017-07-30T09:11:29Z</time>
      </trkpt>
      <trkpt lat="42.61515" lon="-0.16755">
        <ele>1217.7</ele>
        <time>2017-07-30T09:11:30Z</time>
      </trkpt>
      <trkpt lat="42.61518" lon="-0.16761">
        <ele>1216.2</ele>
        <time>2017-07-30T09:11:31Z</time>
      </trkpt>
      <trkpt lat="42.6152" lon="-0.16766">
        <ele>1216.8</ele>
        <time>2017-07-30T09:11:32Z</time>
      </trkpt>
      <trkpt lat="42.61521" lon="-0.16769">
        <ele>1215.4</ele>
        <time>2017-07-30T09:11:33Z</time>
      </trkpt>
      <trkpt lat="42.61523" lon="-0.16776">
        <ele>1216.4</ele>
        <time>2017-07-30T09:11:35Z</time>
      </trkpt>
      <trkpt lat="42.61525" lon="-0.16781">
        <ele>1215.2</ele>
        <time>2017-07-30T09:11:36Z</time>
      </trkpt>
      <trkpt lat="42.61528" lon="-0.16786">
        <ele>1214.1</ele>
        <time>2017-07-30T09:11:37Z</time>
      </trkpt>
      <trkpt lat="42.61531" lon="-0.16792">
        <ele>1213.1</ele>
        <time>2017-07-30T09:11:38Z</time>
      </trkpt>
      <trkpt lat="42.61535" lon="-0.16797">
        <ele>1212.1</ele>
        <time>2017-07-30T09:11:39Z</time>
      </trkpt>
      <trkpt lat="42.61538" lon="-0.16802">
        <ele>1211.4</ele>
        <time>2017-07-30T09:11:40Z</time>
      </trkpt>
      <trkpt lat="42.61542" lon="-0.16806">
        <ele>1210.5</ele>
        <time>2017-07-30T09:11:41Z</time>
      </trkpt>
      <trkpt lat="42.61545" lon="-0.1681">
        <ele>1209.8</ele>
        <time>2017-07-30T09:11:42Z</time>
      </trkpt>
      <trkpt lat="42.61548" lon="-0.16815">
        <ele>1209.2</ele>
        <time>2017-07-30T09:11:43Z</time>
      </trkpt>
      <trkpt lat="42.61551" lon="-0.1682">
        <ele>1208.7</ele>
        <time>2017-07-30T09:11:44Z</time>
      </trkpt>
      <trkpt lat="42.61554" lon="-0.16825">
        <ele>1208.5</ele>
        <time>2017-07-30T09:11:45Z</time>
      </trkpt>
      <trkpt lat="42.61556" lon="-0.1683">
        <ele>1208.4</ele>
        <time>2017-07-30T09:11:46Z</time>
      </trkpt>
      <trkpt lat="42.61557" lon="-0.16834">
        <ele>1208.5</ele>
        <time>2017-07-30T09:11:47Z</time>
      </trkpt>
      <trkpt lat="42.61557" lon="-0.16838">
        <ele>1208.7</ele>
        <time>2017-07-30T09:11:48Z</time>
      </trkpt>
      <trkpt lat="42.61555" lon="-0.16842">
        <ele>1209</ele>
        <time>2017-07-30T09:11:49Z</time>
      </trkpt>
      <trkpt lat="42.61553" lon="-0.16847">
        <ele>1209.3</ele>
        <time>2017-07-30T09:11:50Z</time>
      </trkpt>
      <trkpt lat="42.61552" lon="-0.16853">
        <ele>1209.6</ele>
        <time>2017-07-30T09:11:51Z</time>
      </trkpt>
      <trkpt lat="42.61551" lon="-0.16859">
        <ele>1209.9</ele>
        <time>2017-07-30T09:11:52Z</time>
      </trkpt>
      <trkpt lat="42.61552" lon="-0.16864">
        <ele>1210</ele>
        <time>2017-07-30T09:11:53Z</time>
      </trkpt>
      <trkpt lat="42.61553" lon="-0.16869">
        <ele>1209.9</ele>
        <time>2017-07-30T09:11:54Z</time>
      </trkpt>
      <trkpt lat="42.61554" lon="-0.16873">
        <ele>1209.8</ele>
        <time>2017-07-30T09:11:55Z</time>
      </trkpt>
      <trkpt lat="42.61555" lon="-0.16877">
        <ele>1209.7</ele>
        <time>2017-07-30T09:11:56Z</time>
      </trkpt>
      <trkpt lat="42.61556" lon="-0.1688">
        <ele>1209.5</ele>
        <time>2017-07-30T09:11:57Z</time>
      </trkpt>
      <trkpt lat="42.61557" lon="-0.16886">
        <ele>1209.5</ele>
        <time>2017-07-30T09:11:59Z</time>
      </trkpt>
      <trkpt lat="42.61558" lon="-0.1689">
        <ele>1209.7</ele>
        <time>2017-07-30T09:12:01Z</time>
      </trkpt>
      <trkpt lat="42.6156" lon="-0.16893">
        <ele>1210</ele>
        <time>2017-07-30T09:12:04Z</time>
      </trkpt>
      <trkpt lat="42.61564" lon="-0.16894">
        <ele>1209.9</ele>
        <time>2017-07-30T09:12:07Z</time>
      </trkpt>
      <trkpt lat="42.61567" lon="-0.16895">
        <ele>1210</ele>
        <time>2017-07-30T09:12:09Z</time>
      </trkpt>
      <trkpt lat="42.6157" lon="-0.16895">
        <ele>1210.1</ele>
        <time>2017-07-30T09:12:11Z</time>
      </trkpt>
      <trkpt lat="42.61573" lon="-0.16896">
        <ele>1210.4</ele>
        <time>2017-07-30T09:12:13Z</time>
      </trkpt>
      <trkpt lat="42.61576" lon="-0.16896">
        <ele>1210.8</ele>
        <time>2017-07-30T09:12:15Z</time>
      </trkpt>
      <trkpt lat="42.6158" lon="-0.16898">
        <ele>1211.2</ele>
        <time>2017-07-30T09:12:17Z</time>
      </trkpt>
      <trkpt lat="42.61583" lon="-0.169">
        <ele>1211.7</ele>
        <time>2017-07-30T09:12:19Z</time>
      </trkpt>
      <trkpt lat="42.61586" lon="-0.16902">
        <ele>1212</ele>
        <time>2017-07-30T09:12:22Z</time>
      </trkpt>
      <trkpt lat="42.61589" lon="-0.16905">
        <ele>1212.2</ele>
        <time>2017-07-30T09:12:25Z</time>
      </trkpt>
      <trkpt lat="42.61591" lon="-0.16909">
        <ele>1212.7</ele>
        <time>2017-07-30T09:12:27Z</time>
      </trkpt>
      <trkpt lat="42.61593" lon="-0.16911">
        <ele>1213</ele>
        <time>2017-07-30T09:12:29Z</time>
      </trkpt>
      <trkpt lat="42.61595" lon="-0.16915">
        <ele>1212.7</ele>
        <time>2017-07-30T09:12:31Z</time>
      </trkpt>
      <trkpt lat="42.61595" lon="-0.16919">
        <ele>1212.5</ele>
        <time>2017-07-30T09:12:36Z</time>
      </trkpt>
      <trkpt lat="42.61596" lon="-0.16923">
        <ele>1212.3</ele>
        <time>2017-07-30T09:12:39Z</time>
      </trkpt>
      <trkpt lat="42.61597" lon="-0.16927">
        <ele>1212.6</ele>
        <time>2017-07-30T09:12:41Z</time>
      </trkpt>
      <trkpt lat="42.61599" lon="-0.16931">
        <ele>1212.8</ele>
        <time>2017-07-30T09:12:43Z</time>
      </trkpt>
      <trkpt lat="42.61601" lon="-0.16935">
        <ele>1212.4</ele>
        <time>2017-07-30T09:12:45Z</time>
      </trkpt>
      <trkpt lat="42.61603" lon="-0.16939">
        <ele>1212.5</ele>
        <time>2017-07-30T09:12:47Z</time>
      </trkpt>
      <trkpt lat="42.61605" lon="-0.16943">
        <ele>1212.4</ele>
        <time>2017-07-30T09:12:49Z</time>
      </trkpt>
      <trkpt lat="42.61606" lon="-0.16948">
        <ele>1212.3</ele>
        <time>2017-07-30T09:12:52Z</time>
      </trkpt>
      <trkpt lat="42.61608" lon="-0.16952">
        <ele>1212.1</ele>
        <time>2017-07-30T09:12:54Z</time>
      </trkpt>
      <trkpt lat="42.6161" lon="-0.16956">
        <ele>1212.6</ele>
        <time>2017-07-30T09:12:56Z</time>
      </trkpt>
      <trkpt lat="42.61611" lon="-0.16961">
        <ele>1212.6</ele>
        <time>2017-07-30T09:12:58Z</time>
      </trkpt>
      <trkpt lat="42.61613" lon="-0.16967">
        <ele>1213.2</ele>
        <time>2017-07-30T09:13:00Z</time>
      </trkpt>
      <trkpt lat="42.61613" lon="-0.16973">
        <ele>1213.2</ele>
        <time>2017-07-30T09:13:02Z</time>
      </trkpt>
      <trkpt lat="42.61614" lon="-0.1698">
        <ele>1213.1</ele>
        <time>2017-07-30T09:13:04Z</time>
      </trkpt>
      <trkpt lat="42.61616" lon="-0.16986">
        <ele>1213.3</ele>
        <time>2017-07-30T09:13:06Z</time>
      </trkpt>
      <trkpt lat="42.61617" lon="-0.16993">
        <ele>1213</ele>
        <time>2017-07-30T09:13:08Z</time>
      </trkpt>
      <trkpt lat="42.61617" lon="-0.16998">
        <ele>1212.8</ele>
        <time>2017-07-30T09:13:10Z</time>
      </trkpt>
      <trkpt lat="42.61619" lon="-0.17004">
        <ele>1213</ele>
        <time>2017-07-30T09:13:12Z</time>
      </trkpt>
      <trkpt lat="42.6162" lon="-0.17011">
        <ele>1212.9</ele>
        <time>2017-07-30T09:13:14Z</time>
      </trkpt>
      <trkpt lat="42.61622" lon="-0.17017">
        <ele>1213.3</ele>
        <time>2017-07-30T09:13:16Z</time>
      </trkpt>
      <trkpt lat="42.61623" lon="-0.17022">
        <ele>1213.2</ele>
        <time>2017-07-30T09:13:18Z</time>
      </trkpt>
      <trkpt lat="42.61625" lon="-0.17027">
        <ele>1213.8</ele>
        <time>2017-07-30T09:13:20Z</time>
      </trkpt>
      <trkpt lat="42.61627" lon="-0.17032">
        <ele>1213.7</ele>
        <time>2017-07-30T09:13:22Z</time>
      </trkpt>
      <trkpt lat="42.61629" lon="-0.17037">
        <ele>1214.3</ele>
        <time>2017-07-30T09:13:24Z</time>
      </trkpt>
      <trkpt lat="42.61631" lon="-0.17041">
        <ele>1214.9</ele>
        <time>2017-07-30T09:13:26Z</time>
      </trkpt>
      <trkpt lat="42.61633" lon="-0.17045">
        <ele>1214.7</ele>
        <time>2017-07-30T09:13:28Z</time>
      </trkpt>
      <trkpt lat="42.61634" lon="-0.1705">
        <ele>1215.2</ele>
        <time>2017-07-30T09:13:30Z</time>
      </trkpt>
      <trkpt lat="42.61636" lon="-0.17054">
        <ele>1215</ele>
        <time>2017-07-30T09:13:32Z</time>
      </trkpt>
      <trkpt lat="42.61638" lon="-0.17057">
        <ele>1215.5</ele>
        <time>2017-07-30T09:13:34Z</time>
      </trkpt>
      <trkpt lat="42.6164" lon="-0.17061">
        <ele>1215.3</ele>
        <time>2017-07-30T09:13:36Z</time>
      </trkpt>
      <trkpt lat="42.61641" lon="-0.17064">
        <ele>1215.7</ele>
        <time>2017-07-30T09:13:38Z</time>
      </trkpt>
      <trkpt lat="42.61644" lon="-0.17065">
        <ele>1216</ele>
        <time>2017-07-30T09:13:46Z</time>
      </trkpt>
      <trkpt lat="42.61647" lon="-0.17066">
        <ele>1216.4</ele>
        <time>2017-07-30T09:14:07Z</time>
      </trkpt>
      <trkpt lat="42.61649" lon="-0.1707">
        <ele>1216.2</ele>
        <time>2017-07-30T09:14:10Z</time>
      </trkpt>
      <trkpt lat="42.61651" lon="-0.17074">
        <ele>1216.4</ele>
        <time>2017-07-30T09:14:12Z</time>
      </trkpt>
      <trkpt lat="42.61653" lon="-0.17078">
        <ele>1216.7</ele>
        <time>2017-07-30T09:14:15Z</time>
      </trkpt>
      <trkpt lat="42.61655" lon="-0.17081">
        <ele>1216.5</ele>
        <time>2017-07-30T09:14:17Z</time>
      </trkpt>
      <trkpt lat="42.61657" lon="-0.17085">
        <ele>1216.8</ele>
        <time>2017-07-30T09:14:20Z</time>
      </trkpt>
      <trkpt lat="42.61659" lon="-0.17089">
        <ele>1216.6</ele>
        <time>2017-07-30T09:14:23Z</time>
      </trkpt>
      <trkpt lat="42.61661" lon="-0.17094">
        <ele>1216.8</ele>
        <time>2017-07-30T09:14:26Z</time>
      </trkpt>
      <trkpt lat="42.61663" lon="-0.17097">
        <ele>1217.2</ele>
        <time>2017-07-30T09:14:28Z</time>
      </trkpt>
      <trkpt lat="42.61667" lon="-0.17099">
        <ele>1217.3</ele>
        <time>2017-07-30T09:14:31Z</time>
      </trkpt>
      <trkpt lat="42.6167" lon="-0.17098">
        <ele>1217.7</ele>
        <time>2017-07-30T09:14:33Z</time>
      </trkpt>
      <trkpt lat="42.61674" lon="-0.17098">
        <ele>1218</ele>
        <time>2017-07-30T09:14:35Z</time>
      </trkpt>
      <trkpt lat="42.61678" lon="-0.17096">
        <ele>1219.2</ele>
        <time>2017-07-30T09:14:37Z</time>
      </trkpt>
      <trkpt lat="42.61682" lon="-0.17096">
        <ele>1219.7</ele>
        <time>2017-07-30T09:14:39Z</time>
      </trkpt>
      <trkpt lat="42.61687" lon="-0.17095">
        <ele>1220.1</ele>
        <time>2017-07-30T09:14:41Z</time>
      </trkpt>
      <trkpt lat="42.61692" lon="-0.17095">
        <ele>1221</ele>
        <time>2017-07-30T09:14:43Z</time>
      </trkpt>
      <trkpt lat="42.61697" lon="-0.17095">
        <ele>1221</ele>
        <time>2017-07-30T09:14:45Z</time>
      </trkpt>
      <trkpt lat="42.61702" lon="-0.17094">
        <ele>1221.2</ele>
        <time>2017-07-30T09:14:47Z</time>
      </trkpt>
      <trkpt lat="42.61707" lon="-0.17093">
        <ele>1221.9</ele>
        <time>2017-07-30T09:14:49Z</time>
      </trkpt>
      <trkpt lat="42.6171" lon="-0.17092">
        <ele>1222.3</ele>
        <time>2017-07-30T09:14:50Z</time>
      </trkpt>
      <trkpt lat="42.61712" lon="-0.17091">
        <ele>1222.7</ele>
        <time>2017-07-30T09:14:51Z</time>
      </trkpt>
      <trkpt lat="42.61715" lon="-0.1709">
        <ele>1223.1</ele>
        <time>2017-07-30T09:14:52Z</time>
      </trkpt>
      <trkpt lat="42.6172" lon="-0.17088">
        <ele>1223.8</ele>
        <time>2017-07-30T09:14:54Z</time>
      </trkpt>
      <trkpt lat="42.61725" lon="-0.17087">
        <ele>1224.3</ele>
        <time>2017-07-30T09:14:56Z</time>
      </trkpt>
      <trkpt lat="42.6173" lon="-0.17084">
        <ele>1225</ele>
        <time>2017-07-30T09:14:58Z</time>
      </trkpt>
      <trkpt lat="42.61736" lon="-0.17084">
        <ele>1225.8</ele>
        <time>2017-07-30T09:15:00Z</time>
      </trkpt>
      <trkpt lat="42.61738" lon="-0.17083">
        <ele>1226.2</ele>
        <time>2017-07-30T09:15:01Z</time>
      </trkpt>
      <trkpt lat="42.61741" lon="-0.17083">
        <ele>1226.7</ele>
        <time>2017-07-30T09:15:02Z</time>
      </trkpt>
      <trkpt lat="42.61744" lon="-0.17083">
        <ele>1227.1</ele>
        <time>2017-07-30T09:15:03Z</time>
      </trkpt>
      <trkpt lat="42.61747" lon="-0.17082">
        <ele>1227.6</ele>
        <time>2017-07-30T09:15:04Z</time>
      </trkpt>
      <trkpt lat="42.6175" lon="-0.17082">
        <ele>1228</ele>
        <time>2017-07-30T09:15:05Z</time>
      </trkpt>
      <trkpt lat="42.61752" lon="-0.17082">
        <ele>1228.5</ele>
        <time>2017-07-30T09:15:06Z</time>
      </trkpt>
      <trkpt lat="42.61755" lon="-0.17082">
        <ele>1229.1</ele>
        <time>2017-07-30T09:15:07Z</time>
      </trkpt>
      <trkpt lat="42.61758" lon="-0.17081">
        <ele>1229.7</ele>
        <time>2017-07-30T09:15:08Z</time>
      </trkpt>
      <trkpt lat="42.61763" lon="-0.1708">
        <ele>1230.8</ele>
        <time>2017-07-30T09:15:10Z</time>
      </trkpt>
      <trkpt lat="42.61766" lon="-0.1708">
        <ele>1231.4</ele>
        <time>2017-07-30T09:15:11Z</time>
      </trkpt>
      <trkpt lat="42.61771" lon="-0.17079">
        <ele>1232.2</ele>
        <time>2017-07-30T09:15:13Z</time>
      </trkpt>
      <trkpt lat="42.61774" lon="-0.17078">
        <ele>1232.3</ele>
        <time>2017-07-30T09:15:14Z</time>
      </trkpt>
      <trkpt lat="42.61777" lon="-0.17078">
        <ele>1232.4</ele>
        <time>2017-07-30T09:15:15Z</time>
      </trkpt>
      <trkpt lat="42.6178" lon="-0.17077">
        <ele>1232.6</ele>
        <time>2017-07-30T09:15:16Z</time>
      </trkpt>
      <trkpt lat="42.61783" lon="-0.17076">
        <ele>1232.7</ele>
        <time>2017-07-30T09:15:17Z</time>
      </trkpt>
      <trkpt lat="42.61786" lon="-0.17076">
        <ele>1232.9</ele>
        <time>2017-07-30T09:15:18Z</time>
      </trkpt>
      <trkpt lat="42.61789" lon="-0.17075">
        <ele>1233</ele>
        <time>2017-07-30T09:15:19Z</time>
      </trkpt>
      <trkpt lat="42.61792" lon="-0.17076">
        <ele>1233.2</ele>
        <time>2017-07-30T09:15:20Z</time>
      </trkpt>
      <trkpt lat="42.61798" lon="-0.17077">
        <ele>1233.6</ele>
        <time>2017-07-30T09:15:22Z</time>
      </trkpt>
      <trkpt lat="42.618" lon="-0.17078">
        <ele>1233.8</ele>
        <time>2017-07-30T09:15:23Z</time>
      </trkpt>
      <trkpt lat="42.61803" lon="-0.17078">
        <ele>1234.1</ele>
        <time>2017-07-30T09:15:24Z</time>
      </trkpt>
      <trkpt lat="42.61806" lon="-0.17078">
        <ele>1234.3</ele>
        <time>2017-07-30T09:15:25Z</time>
      </trkpt>
      <trkpt lat="42.61809" lon="-0.17078">
        <ele>1234.5</ele>
        <time>2017-07-30T09:15:26Z</time>
      </trkpt>
      <trkpt lat="42.61811" lon="-0.17078">
        <ele>1234.8</ele>
        <time>2017-07-30T09:15:27Z</time>
      </trkpt>
      <trkpt lat="42.61817" lon="-0.17079">
        <ele>1235.4</ele>
        <time>2017-07-30T09:15:29Z</time>
      </trkpt>
      <trkpt lat="42.61822" lon="-0.17079">
        <ele>1236.1</ele>
        <time>2017-07-30T09:15:31Z</time>
      </trkpt>
      <trkpt lat="42.61827" lon="-0.17078">
        <ele>1236.8</ele>
        <time>2017-07-30T09:15:33Z</time>
      </trkpt>
      <trkpt lat="42.61831" lon="-0.17076">
        <ele>1237.4</ele>
        <time>2017-07-30T09:15:35Z</time>
      </trkpt>
      <trkpt lat="42.61836" lon="-0.17072">
        <ele>1237.8</ele>
        <time>2017-07-30T09:15:37Z</time>
      </trkpt>
      <trkpt lat="42.6184" lon="-0.17068">
        <ele>1238.2</ele>
        <time>2017-07-30T09:15:39Z</time>
      </trkpt>
      <trkpt lat="42.61844" lon="-0.17065">
        <ele>1238.4</ele>
        <time>2017-07-30T09:15:41Z</time>
      </trkpt>
      <trkpt lat="42.61849" lon="-0.17062">
        <ele>1238.6</ele>
        <time>2017-07-30T09:15:43Z</time>
      </trkpt>
      <trkpt lat="42.61853" lon="-0.17058">
        <ele>1238.8</ele>
        <time>2017-07-30T09:15:45Z</time>
      </trkpt>
      <trkpt lat="42.61856" lon="-0.17055">
        <ele>1239</ele>
        <time>2017-07-30T09:15:47Z</time>
      </trkpt>
      <trkpt lat="42.6186" lon="-0.17053">
        <ele>1239</ele>
        <time>2017-07-30T09:15:49Z</time>
      </trkpt>
      <trkpt lat="42.61865" lon="-0.17052">
        <ele>1239</ele>
        <time>2017-07-30T09:15:51Z</time>
      </trkpt>
      <trkpt lat="42.61868" lon="-0.17051">
        <ele>1239</ele>
        <time>2017-07-30T09:15:53Z</time>
      </trkpt>
      <trkpt lat="42.61871" lon="-0.17052">
        <ele>1239</ele>
        <time>2017-07-30T09:15:55Z</time>
      </trkpt>
      <trkpt lat="42.61874" lon="-0.17056">
        <ele>1238.7</ele>
        <time>2017-07-30T09:15:57Z</time>
      </trkpt>
      <trkpt lat="42.61875" lon="-0.1706">
        <ele>1238.2</ele>
        <time>2017-07-30T09:15:58Z</time>
      </trkpt>
      <trkpt lat="42.61876" lon="-0.17064">
        <ele>1237.7</ele>
        <time>2017-07-30T09:15:59Z</time>
      </trkpt>
      <trkpt lat="42.61877" lon="-0.17068">
        <ele>1237.2</ele>
        <time>2017-07-30T09:16:00Z</time>
      </trkpt>
      <trkpt lat="42.61878" lon="-0.17073">
        <ele>1236.5</ele>
        <time>2017-07-30T09:16:01Z</time>
      </trkpt>
      <trkpt lat="42.61879" lon="-0.17078">
        <ele>1235.9</ele>
        <time>2017-07-30T09:16:02Z</time>
      </trkpt>
      <trkpt lat="42.61879" lon="-0.17083">
        <ele>1235.3</ele>
        <time>2017-07-30T09:16:03Z</time>
      </trkpt>
      <trkpt lat="42.6188" lon="-0.17089">
        <ele>1234.6</ele>
        <time>2017-07-30T09:16:04Z</time>
      </trkpt>
      <trkpt lat="42.61881" lon="-0.17094">
        <ele>1234</ele>
        <time>2017-07-30T09:16:05Z</time>
      </trkpt>
      <trkpt lat="42.61882" lon="-0.171">
        <ele>1234</ele>
        <time>2017-07-30T09:16:06Z</time>
      </trkpt>
      <trkpt lat="42.61882" lon="-0.17106">
        <ele>1234</ele>
        <time>2017-07-30T09:16:07Z</time>
      </trkpt>
      <trkpt lat="42.61883" lon="-0.17111">
        <ele>1234</ele>
        <time>2017-07-30T09:16:08Z</time>
      </trkpt>
      <trkpt lat="42.61884" lon="-0.17117">
        <ele>1234.1</ele>
        <time>2017-07-30T09:16:09Z</time>
      </trkpt>
      <trkpt lat="42.61885" lon="-0.17122">
        <ele>1234.1</ele>
        <time>2017-07-30T09:16:10Z</time>
      </trkpt>
      <trkpt lat="42.61887" lon="-0.17128">
        <ele>1234.1</ele>
        <time>2017-07-30T09:16:11Z</time>
      </trkpt>
      <trkpt lat="42.61888" lon="-0.17133">
        <ele>1234.1</ele>
        <time>2017-07-30T09:16:12Z</time>
      </trkpt>
      <trkpt lat="42.61889" lon="-0.17139">
        <ele>1234.1</ele>
        <time>2017-07-30T09:16:13Z</time>
      </trkpt>
      <trkpt lat="42.6189" lon="-0.17144">
        <ele>1234.1</ele>
        <time>2017-07-30T09:16:14Z</time>
      </trkpt>
      <trkpt lat="42.61891" lon="-0.1715">
        <ele>1234.2</ele>
        <time>2017-07-30T09:16:15Z</time>
      </trkpt>
      <trkpt lat="42.61892" lon="-0.17156">
        <ele>1234.2</ele>
        <time>2017-07-30T09:16:16Z</time>
      </trkpt>
      <trkpt lat="42.61894" lon="-0.17161">
        <ele>1234.2</ele>
        <time>2017-07-30T09:16:17Z</time>
      </trkpt>
      <trkpt lat="42.61895" lon="-0.17167">
        <ele>1234.2</ele>
        <time>2017-07-30T09:16:18Z</time>
      </trkpt>
      <trkpt lat="42.61896" lon="-0.17172">
        <ele>1234.2</ele>
        <time>2017-07-30T09:16:19Z</time>
      </trkpt>
      <trkpt lat="42.61897" lon="-0.17177">
        <ele>1234.2</ele>
        <time>2017-07-30T09:16:20Z</time>
      </trkpt>
      <trkpt lat="42.61898" lon="-0.17183">
        <ele>1234.2</ele>
        <time>2017-07-30T09:16:21Z</time>
      </trkpt>
      <trkpt lat="42.61899" lon="-0.17189">
        <ele>1234.3</ele>
        <time>2017-07-30T09:16:22Z</time>
      </trkpt>
      <trkpt lat="42.619" lon="-0.17194">
        <ele>1234.3</ele>
        <time>2017-07-30T09:16:23Z</time>
      </trkpt>
      <trkpt lat="42.61901" lon="-0.172">
        <ele>1234.3</ele>
        <time>2017-07-30T09:16:24Z</time>
      </trkpt>
      <trkpt lat="42.61902" lon="-0.17206">
        <ele>1234.4</ele>
        <time>2017-07-30T09:16:25Z</time>
      </trkpt>
      <trkpt lat="42.61903" lon="-0.17212">
        <ele>1234.4</ele>
        <time>2017-07-30T09:16:26Z</time>
      </trkpt>
      <trkpt lat="42.61904" lon="-0.17217">
        <ele>1234.4</ele>
        <time>2017-07-30T09:16:27Z</time>
      </trkpt>
      <trkpt lat="42.61905" lon="-0.17223">
        <ele>1234.5</ele>
        <time>2017-07-30T09:16:28Z</time>
      </trkpt>
      <trkpt lat="42.61907" lon="-0.17228">
        <ele>1234.5</ele>
        <time>2017-07-30T09:16:29Z</time>
      </trkpt>
      <trkpt lat="42.61908" lon="-0.17234">
        <ele>1234.5</ele>
        <time>2017-07-30T09:16:30Z</time>
      </trkpt>
      <trkpt lat="42.61909" lon="-0.17239">
        <ele>1234.6</ele>
        <time>2017-07-30T09:16:31Z</time>
      </trkpt>
      <trkpt lat="42.6191" lon="-0.17245">
        <ele>1234.6</ele>
        <time>2017-07-30T09:16:32Z</time>
      </trkpt>
      <trkpt lat="42.61911" lon="-0.1725">
        <ele>1234.6</ele>
        <time>2017-07-30T09:16:33Z</time>
      </trkpt>
      <trkpt lat="42.61912" lon="-0.17256">
        <ele>1234.7</ele>
        <time>2017-07-30T09:16:34Z</time>
      </trkpt>
      <trkpt lat="42.61913" lon="-0.17262">
        <ele>1234.8</ele>
        <time>2017-07-30T09:16:35Z</time>
      </trkpt>
      <trkpt lat="42.61914" lon="-0.17268">
        <ele>1234.9</ele>
        <time>2017-07-30T09:16:36Z</time>
      </trkpt>
      <trkpt lat="42.61916" lon="-0.17274">
        <ele>1235.1</ele>
        <time>2017-07-30T09:16:37Z</time>
      </trkpt>
      <trkpt lat="42.61916" lon="-0.1728">
        <ele>1235.2</ele>
        <time>2017-07-30T09:16:38Z</time>
      </trkpt>
      <trkpt lat="42.61917" lon="-0.17286">
        <ele>1235.4</ele>
        <time>2017-07-30T09:16:39Z</time>
      </trkpt>
      <trkpt lat="42.61917" lon="-0.17293">
        <ele>1235.5</ele>
        <time>2017-07-30T09:16:40Z</time>
      </trkpt>
      <trkpt lat="42.61918" lon="-0.17299">
        <ele>1235.6</ele>
        <time>2017-07-30T09:16:41Z</time>
      </trkpt>
      <trkpt lat="42.61919" lon="-0.17305">
        <ele>1235.6</ele>
        <time>2017-07-30T09:16:42Z</time>
      </trkpt>
      <trkpt lat="42.61919" lon="-0.17312">
        <ele>1235.7</ele>
        <time>2017-07-30T09:16:43Z</time>
      </trkpt>
      <trkpt lat="42.6192" lon="-0.17318">
        <ele>1235.7</ele>
        <time>2017-07-30T09:16:44Z</time>
      </trkpt>
      <trkpt lat="42.6192" lon="-0.17325">
        <ele>1235.8</ele>
        <time>2017-07-30T09:16:45Z</time>
      </trkpt>
      <trkpt lat="42.61921" lon="-0.17331">
        <ele>1235.8</ele>
        <time>2017-07-30T09:16:46Z</time>
      </trkpt>
      <trkpt lat="42.61921" lon="-0.17339">
        <ele>1235.8</ele>
        <time>2017-07-30T09:16:47Z</time>
      </trkpt>
      <trkpt lat="42.61921" lon="-0.17346">
        <ele>1235.8</ele>
        <time>2017-07-30T09:16:48Z</time>
      </trkpt>
      <trkpt lat="42.61922" lon="-0.17353">
        <ele>1235.8</ele>
        <time>2017-07-30T09:16:49Z</time>
      </trkpt>
      <trkpt lat="42.61923" lon="-0.1736">
        <ele>1235.8</ele>
        <time>2017-07-30T09:16:50Z</time>
      </trkpt>
      <trkpt lat="42.61923" lon="-0.17367">
        <ele>1235.9</ele>
        <time>2017-07-30T09:16:51Z</time>
      </trkpt>
      <trkpt lat="42.61923" lon="-0.17374">
        <ele>1235.9</ele>
        <time>2017-07-30T09:16:52Z</time>
      </trkpt>
      <trkpt lat="42.61924" lon="-0.17381">
        <ele>1235.9</ele>
        <time>2017-07-30T09:16:53Z</time>
      </trkpt>
      <trkpt lat="42.61924" lon="-0.17388">
        <ele>1235.9</ele>
        <time>2017-07-30T09:16:54Z</time>
      </trkpt>
      <trkpt lat="42.61925" lon="-0.17395">
        <ele>1235.9</ele>
        <time>2017-07-30T09:16:55Z</time>
      </trkpt>
      <trkpt lat="42.61925" lon="-0.17401">
        <ele>1235.9</ele>
        <time>2017-07-30T09:16:56Z</time>
      </trkpt>
      <trkpt lat="42.61926" lon="-0.17408">
        <ele>1235.9</ele>
        <time>2017-07-30T09:16:57Z</time>
      </trkpt>
      <trkpt lat="42.61926" lon="-0.17415">
        <ele>1235.9</ele>
        <time>2017-07-30T09:16:58Z</time>
      </trkpt>
      <trkpt lat="42.61926" lon="-0.17422">
        <ele>1235.9</ele>
        <time>2017-07-30T09:16:59Z</time>
      </trkpt>
      <trkpt lat="42.61927" lon="-0.17428">
        <ele>1236</ele>
        <time>2017-07-30T09:17:00Z</time>
      </trkpt>
      <trkpt lat="42.61927" lon="-0.17435">
        <ele>1236</ele>
        <time>2017-07-30T09:17:01Z</time>
      </trkpt>
      <trkpt lat="42.61927" lon="-0.17441">
        <ele>1236</ele>
        <time>2017-07-30T09:17:02Z</time>
      </trkpt>
      <trkpt lat="42.61928" lon="-0.17448">
        <ele>1236</ele>
        <time>2017-07-30T09:17:03Z</time>
      </trkpt>
      <trkpt lat="42.61928" lon="-0.17455">
        <ele>1236</ele>
        <time>2017-07-30T09:17:04Z</time>
      </trkpt>
      <trkpt lat="42.61929" lon="-0.17463">
        <ele>1236</ele>
        <time>2017-07-30T09:17:05Z</time>
      </trkpt>
      <trkpt lat="42.61929" lon="-0.1747">
        <ele>1236</ele>
        <time>2017-07-30T09:17:06Z</time>
      </trkpt>
      <trkpt lat="42.61929" lon="-0.17477">
        <ele>1236</ele>
        <time>2017-07-30T09:17:07Z</time>
      </trkpt>
      <trkpt lat="42.61929" lon="-0.17484">
        <ele>1236</ele>
        <time>2017-07-30T09:17:08Z</time>
      </trkpt>
      <trkpt lat="42.6193" lon="-0.17491">
        <ele>1236</ele>
        <time>2017-07-30T09:17:09Z</time>
      </trkpt>
      <trkpt lat="42.61929" lon="-0.17498">
        <ele>1236.1</ele>
        <time>2017-07-30T09:17:10Z</time>
      </trkpt>
      <trkpt lat="42.6193" lon="-0.17505">
        <ele>1236.1</ele>
        <time>2017-07-30T09:17:11Z</time>
      </trkpt>
      <trkpt lat="42.6193" lon="-0.17512">
        <ele>1236.2</ele>
        <time>2017-07-30T09:17:12Z</time>
      </trkpt>
      <trkpt lat="42.61932" lon="-0.17519">
        <ele>1236.2</ele>
        <time>2017-07-30T09:17:13Z</time>
      </trkpt>
      <trkpt lat="42.61932" lon="-0.17526">
        <ele>1236.3</ele>
        <time>2017-07-30T09:17:14Z</time>
      </trkpt>
      <trkpt lat="42.61933" lon="-0.17533">
        <ele>1236.3</ele>
        <time>2017-07-30T09:17:15Z</time>
      </trkpt>
      <trkpt lat="42.61933" lon="-0.1754">
        <ele>1236.4</ele>
        <time>2017-07-30T09:17:16Z</time>
      </trkpt>
      <trkpt lat="42.61934" lon="-0.17547">
        <ele>1236.5</ele>
        <time>2017-07-30T09:17:17Z</time>
      </trkpt>
      <trkpt lat="42.61935" lon="-0.17554">
        <ele>1236.5</ele>
        <time>2017-07-30T09:17:18Z</time>
      </trkpt>
      <trkpt lat="42.61937" lon="-0.17561">
        <ele>1236.6</ele>
        <time>2017-07-30T09:17:19Z</time>
      </trkpt>
      <trkpt lat="42.61938" lon="-0.17568">
        <ele>1236.8</ele>
        <time>2017-07-30T09:17:20Z</time>
      </trkpt>
      <trkpt lat="42.61939" lon="-0.17576">
        <ele>1237</ele>
        <time>2017-07-30T09:17:21Z</time>
      </trkpt>
      <trkpt lat="42.6194" lon="-0.17582">
        <ele>1237.2</ele>
        <time>2017-07-30T09:17:22Z</time>
      </trkpt>
      <trkpt lat="42.61942" lon="-0.1759">
        <ele>1237.4</ele>
        <time>2017-07-30T09:17:23Z</time>
      </trkpt>
      <trkpt lat="42.61943" lon="-0.17596">
        <ele>1237.5</ele>
        <time>2017-07-30T09:17:24Z</time>
      </trkpt>
      <trkpt lat="42.61944" lon="-0.17603">
        <ele>1237.6</ele>
        <time>2017-07-30T09:17:25Z</time>
      </trkpt>
      <trkpt lat="42.61946" lon="-0.1761">
        <ele>1237.7</ele>
        <time>2017-07-30T09:17:26Z</time>
      </trkpt>
      <trkpt lat="42.61947" lon="-0.17617">
        <ele>1237.7</ele>
        <time>2017-07-30T09:17:27Z</time>
      </trkpt>
      <trkpt lat="42.61948" lon="-0.17624">
        <ele>1237.8</ele>
        <time>2017-07-30T09:17:28Z</time>
      </trkpt>
      <trkpt lat="42.6195" lon="-0.17631">
        <ele>1237.8</ele>
        <time>2017-07-30T09:17:29Z</time>
      </trkpt>
      <trkpt lat="42.61951" lon="-0.17638">
        <ele>1237.9</ele>
        <time>2017-07-30T09:17:30Z</time>
      </trkpt>
      <trkpt lat="42.61952" lon="-0.17645">
        <ele>1237.9</ele>
        <time>2017-07-30T09:17:31Z</time>
      </trkpt>
      <trkpt lat="42.61954" lon="-0.17652">
        <ele>1237.9</ele>
        <time>2017-07-30T09:17:32Z</time>
      </trkpt>
      <trkpt lat="42.61956" lon="-0.17659">
        <ele>1238</ele>
        <time>2017-07-30T09:17:33Z</time>
      </trkpt>
      <trkpt lat="42.61958" lon="-0.17666">
        <ele>1238</ele>
        <time>2017-07-30T09:17:34Z</time>
      </trkpt>
      <trkpt lat="42.61959" lon="-0.17673">
        <ele>1238.1</ele>
        <time>2017-07-30T09:17:35Z</time>
      </trkpt>
      <trkpt lat="42.6196" lon="-0.1768">
        <ele>1238.1</ele>
        <time>2017-07-30T09:17:36Z</time>
      </trkpt>
      <trkpt lat="42.61963" lon="-0.17687">
        <ele>1238.1</ele>
        <time>2017-07-30T09:17:37Z</time>
      </trkpt>
      <trkpt lat="42.61965" lon="-0.17694">
        <ele>1238.2</ele>
        <time>2017-07-30T09:17:38Z</time>
      </trkpt>
      <trkpt lat="42.61968" lon="-0.177">
        <ele>1238.2</ele>
        <time>2017-07-30T09:17:39Z</time>
      </trkpt>
      <trkpt lat="42.6197" lon="-0.17707">
        <ele>1238.3</ele>
        <time>2017-07-30T09:17:40Z</time>
      </trkpt>
      <trkpt lat="42.61973" lon="-0.17714">
        <ele>1238.3</ele>
        <time>2017-07-30T09:17:41Z</time>
      </trkpt>
      <trkpt lat="42.61975" lon="-0.1772">
        <ele>1238.3</ele>
        <time>2017-07-30T09:17:42Z</time>
      </trkpt>
      <trkpt lat="42.61978" lon="-0.17726">
        <ele>1238.4</ele>
        <time>2017-07-30T09:17:43Z</time>
      </trkpt>
      <trkpt lat="42.6198" lon="-0.17732">
        <ele>1238.5</ele>
        <time>2017-07-30T09:17:44Z</time>
      </trkpt>
      <trkpt lat="42.61984" lon="-0.17739">
        <ele>1238.6</ele>
        <time>2017-07-30T09:17:45Z</time>
      </trkpt>
      <trkpt lat="42.61987" lon="-0.17745">
        <ele>1238.6</ele>
        <time>2017-07-30T09:17:46Z</time>
      </trkpt>
      <trkpt lat="42.6199" lon="-0.17751">
        <ele>1238.7</ele>
        <time>2017-07-30T09:17:47Z</time>
      </trkpt>
      <trkpt lat="42.61993" lon="-0.17757">
        <ele>1238.9</ele>
        <time>2017-07-30T09:17:48Z</time>
      </trkpt>
      <trkpt lat="42.61995" lon="-0.17764">
        <ele>1239</ele>
        <time>2017-07-30T09:17:49Z</time>
      </trkpt>
      <trkpt lat="42.61997" lon="-0.1777">
        <ele>1239.2</ele>
        <time>2017-07-30T09:17:50Z</time>
      </trkpt>
      <trkpt lat="42.61999" lon="-0.17776">
        <ele>1239.4</ele>
        <time>2017-07-30T09:17:51Z</time>
      </trkpt>
      <trkpt lat="42.62001" lon="-0.17783">
        <ele>1239.6</ele>
        <time>2017-07-30T09:17:52Z</time>
      </trkpt>
      <trkpt lat="42.62003" lon="-0.1779">
        <ele>1239.8</ele>
        <time>2017-07-30T09:17:53Z</time>
      </trkpt>
      <trkpt lat="42.62004" lon="-0.17796">
        <ele>1239.8</ele>
        <time>2017-07-30T09:17:54Z</time>
      </trkpt>
      <trkpt lat="42.62005" lon="-0.17803">
        <ele>1239.9</ele>
        <time>2017-07-30T09:17:55Z</time>
      </trkpt>
      <trkpt lat="42.62006" lon="-0.17809">
        <ele>1239.9</ele>
        <time>2017-07-30T09:17:56Z</time>
      </trkpt>
      <trkpt lat="42.62007" lon="-0.17816">
        <ele>1240</ele>
        <time>2017-07-30T09:17:57Z</time>
      </trkpt>
      <trkpt lat="42.62008" lon="-0.17821">
        <ele>1240</ele>
        <time>2017-07-30T09:17:58Z</time>
      </trkpt>
      <trkpt lat="42.6201" lon="-0.17827">
        <ele>1240.1</ele>
        <time>2017-07-30T09:17:59Z</time>
      </trkpt>
      <trkpt lat="42.6201" lon="-0.17834">
        <ele>1240.2</ele>
        <time>2017-07-30T09:18:00Z</time>
      </trkpt>
      <trkpt lat="42.62011" lon="-0.1784">
        <ele>1240.2</ele>
        <time>2017-07-30T09:18:01Z</time>
      </trkpt>
      <trkpt lat="42.62012" lon="-0.17847">
        <ele>1240.3</ele>
        <time>2017-07-30T09:18:02Z</time>
      </trkpt>
      <trkpt lat="42.62012" lon="-0.17854">
        <ele>1240.4</ele>
        <time>2017-07-30T09:18:03Z</time>
      </trkpt>
      <trkpt lat="42.62013" lon="-0.1786">
        <ele>1240.4</ele>
        <time>2017-07-30T09:18:04Z</time>
      </trkpt>
      <trkpt lat="42.62014" lon="-0.17867">
        <ele>1240.5</ele>
        <time>2017-07-30T09:18:05Z</time>
      </trkpt>
      <trkpt lat="42.62014" lon="-0.17873">
        <ele>1240.6</ele>
        <time>2017-07-30T09:18:06Z</time>
      </trkpt>
      <trkpt lat="42.62015" lon="-0.17879">
        <ele>1240.7</ele>
        <time>2017-07-30T09:18:07Z</time>
      </trkpt>
      <trkpt lat="42.62016" lon="-0.17886">
        <ele>1240.9</ele>
        <time>2017-07-30T09:18:08Z</time>
      </trkpt>
      <trkpt lat="42.62017" lon="-0.17892">
        <ele>1241.1</ele>
        <time>2017-07-30T09:18:09Z</time>
      </trkpt>
      <trkpt lat="42.62018" lon="-0.17898">
        <ele>1241.3</ele>
        <time>2017-07-30T09:18:10Z</time>
      </trkpt>
      <trkpt lat="42.6202" lon="-0.17904">
        <ele>1241.5</ele>
        <time>2017-07-30T09:18:11Z</time>
      </trkpt>
      <trkpt lat="42.62022" lon="-0.1791">
        <ele>1241.7</ele>
        <time>2017-07-30T09:18:12Z</time>
      </trkpt>
      <trkpt lat="42.62023" lon="-0.17916">
        <ele>1241.9</ele>
        <time>2017-07-30T09:18:13Z</time>
      </trkpt>
      <trkpt lat="42.62025" lon="-0.17922">
        <ele>1242.1</ele>
        <time>2017-07-30T09:18:14Z</time>
      </trkpt>
      <trkpt lat="42.62026" lon="-0.17929">
        <ele>1242.2</ele>
        <time>2017-07-30T09:18:15Z</time>
      </trkpt>
      <trkpt lat="42.62027" lon="-0.17935">
        <ele>1242.3</ele>
        <time>2017-07-30T09:18:16Z</time>
      </trkpt>
      <trkpt lat="42.62028" lon="-0.17941">
        <ele>1242.4</ele>
        <time>2017-07-30T09:18:17Z</time>
      </trkpt>
      <trkpt lat="42.62029" lon="-0.17947">
        <ele>1242.5</ele>
        <time>2017-07-30T09:18:18Z</time>
      </trkpt>
      <trkpt lat="42.6203" lon="-0.17953">
        <ele>1242.6</ele>
        <time>2017-07-30T09:18:19Z</time>
      </trkpt>
      <trkpt lat="42.6203" lon="-0.1796">
        <ele>1242.7</ele>
        <time>2017-07-30T09:18:20Z</time>
      </trkpt>
      <trkpt lat="42.6203" lon="-0.17966">
        <ele>1242.7</ele>
        <time>2017-07-30T09:18:21Z</time>
      </trkpt>
      <trkpt lat="42.6203" lon="-0.17972">
        <ele>1242.9</ele>
        <time>2017-07-30T09:18:22Z</time>
      </trkpt>
      <trkpt lat="42.62031" lon="-0.17978">
        <ele>1243.1</ele>
        <time>2017-07-30T09:18:23Z</time>
      </trkpt>
      <trkpt lat="42.62031" lon="-0.17985">
        <ele>1243.3</ele>
        <time>2017-07-30T09:18:24Z</time>
      </trkpt>
      <trkpt lat="42.62031" lon="-0.17991">
        <ele>1243.5</ele>
        <time>2017-07-30T09:18:25Z</time>
      </trkpt>
      <trkpt lat="42.62031" lon="-0.17998">
        <ele>1243.7</ele>
        <time>2017-07-30T09:18:26Z</time>
      </trkpt>
      <trkpt lat="42.62031" lon="-0.18003">
        <ele>1243.8</ele>
        <time>2017-07-30T09:18:27Z</time>
      </trkpt>
      <trkpt lat="42.62031" lon="-0.1801">
        <ele>1244</ele>
        <time>2017-07-30T09:18:28Z</time>
      </trkpt>
      <trkpt lat="42.62032" lon="-0.18016">
        <ele>1244.1</ele>
        <time>2017-07-30T09:18:29Z</time>
      </trkpt>
      <trkpt lat="42.62033" lon="-0.18022">
        <ele>1244.2</ele>
        <time>2017-07-30T09:18:30Z</time>
      </trkpt>
      <trkpt lat="42.62033" lon="-0.18028">
        <ele>1244.3</ele>
        <time>2017-07-30T09:18:31Z</time>
      </trkpt>
      <trkpt lat="42.62033" lon="-0.18034">
        <ele>1244.4</ele>
        <time>2017-07-30T09:18:32Z</time>
      </trkpt>
      <trkpt lat="42.62034" lon="-0.1804">
        <ele>1244.5</ele>
        <time>2017-07-30T09:18:33Z</time>
      </trkpt>
      <trkpt lat="42.62035" lon="-0.18047">
        <ele>1244.6</ele>
        <time>2017-07-30T09:18:34Z</time>
      </trkpt>
      <trkpt lat="42.62035" lon="-0.18053">
        <ele>1244.6</ele>
        <time>2017-07-30T09:18:35Z</time>
      </trkpt>
      <trkpt lat="42.62036" lon="-0.18059">
        <ele>1244.7</ele>
        <time>2017-07-30T09:18:36Z</time>
      </trkpt>
      <trkpt lat="42.62037" lon="-0.18065">
        <ele>1244.8</ele>
        <time>2017-07-30T09:18:37Z</time>
      </trkpt>
      <trkpt lat="42.62038" lon="-0.18071">
        <ele>1244.9</ele>
        <time>2017-07-30T09:18:38Z</time>
      </trkpt>
      <trkpt lat="42.6204" lon="-0.18077">
        <ele>1245</ele>
        <time>2017-07-30T09:18:39Z</time>
      </trkpt>
      <trkpt lat="42.6204" lon="-0.18083">
        <ele>1245.1</ele>
        <time>2017-07-30T09:18:40Z</time>
      </trkpt>
      <trkpt lat="42.62041" lon="-0.18089">
        <ele>1245.3</ele>
        <time>2017-07-30T09:18:41Z</time>
      </trkpt>
      <trkpt lat="42.62042" lon="-0.18096">
        <ele>1245.5</ele>
        <time>2017-07-30T09:18:42Z</time>
      </trkpt>
      <trkpt lat="42.62044" lon="-0.18101">
        <ele>1245.7</ele>
        <time>2017-07-30T09:18:43Z</time>
      </trkpt>
      <trkpt lat="42.62045" lon="-0.18107">
        <ele>1245.9</ele>
        <time>2017-07-30T09:18:44Z</time>
      </trkpt>
      <trkpt lat="42.62047" lon="-0.18113">
        <ele>1246.1</ele>
        <time>2017-07-30T09:18:45Z</time>
      </trkpt>
      <trkpt lat="42.62048" lon="-0.18119">
        <ele>1246.3</ele>
        <time>2017-07-30T09:18:46Z</time>
      </trkpt>
      <trkpt lat="42.62049" lon="-0.18125">
        <ele>1246.4</ele>
        <time>2017-07-30T09:18:47Z</time>
      </trkpt>
      <trkpt lat="42.62049" lon="-0.18131">
        <ele>1246.5</ele>
        <time>2017-07-30T09:18:48Z</time>
      </trkpt>
      <trkpt lat="42.6205" lon="-0.18137">
        <ele>1246.6</ele>
        <time>2017-07-30T09:18:49Z</time>
      </trkpt>
      <trkpt lat="42.6205" lon="-0.18143">
        <ele>1246.7</ele>
        <time>2017-07-30T09:18:50Z</time>
      </trkpt>
      <trkpt lat="42.6205" lon="-0.18149">
        <ele>1246.8</ele>
        <time>2017-07-30T09:18:51Z</time>
      </trkpt>
      <trkpt lat="42.62051" lon="-0.18155">
        <ele>1246.8</ele>
        <time>2017-07-30T09:18:52Z</time>
      </trkpt>
      <trkpt lat="42.6205" lon="-0.18161">
        <ele>1246.9</ele>
        <time>2017-07-30T09:18:53Z</time>
      </trkpt>
      <trkpt lat="42.62051" lon="-0.18168">
        <ele>1247.1</ele>
        <time>2017-07-30T09:18:54Z</time>
      </trkpt>
      <trkpt lat="42.62051" lon="-0.18174">
        <ele>1247.4</ele>
        <time>2017-07-30T09:18:55Z</time>
      </trkpt>
      <trkpt lat="42.6205" lon="-0.1818">
        <ele>1247.6</ele>
        <time>2017-07-30T09:18:56Z</time>
      </trkpt>
      <trkpt lat="42.62051" lon="-0.18186">
        <ele>1247.7</ele>
        <time>2017-07-30T09:18:57Z</time>
      </trkpt>
      <trkpt lat="42.62051" lon="-0.18192">
        <ele>1247.9</ele>
        <time>2017-07-30T09:18:58Z</time>
      </trkpt>
      <trkpt lat="42.6205" lon="-0.18199">
        <ele>1248.1</ele>
        <time>2017-07-30T09:18:59Z</time>
      </trkpt>
      <trkpt lat="42.6205" lon="-0.18205">
        <ele>1248.3</ele>
        <time>2017-07-30T09:19:00Z</time>
      </trkpt>
      <trkpt lat="42.6205" lon="-0.18211">
        <ele>1248.4</ele>
        <time>2017-07-30T09:19:01Z</time>
      </trkpt>
      <trkpt lat="42.62049" lon="-0.18217">
        <ele>1248.5</ele>
        <time>2017-07-30T09:19:02Z</time>
      </trkpt>
      <trkpt lat="42.62049" lon="-0.18223">
        <ele>1248.6</ele>
        <time>2017-07-30T09:19:03Z</time>
      </trkpt>
      <trkpt lat="42.62048" lon="-0.1823">
        <ele>1248.7</ele>
        <time>2017-07-30T09:19:04Z</time>
      </trkpt>
      <trkpt lat="42.62048" lon="-0.18236">
        <ele>1248.7</ele>
        <time>2017-07-30T09:19:05Z</time>
      </trkpt>
      <trkpt lat="42.62048" lon="-0.18242">
        <ele>1248.8</ele>
        <time>2017-07-30T09:19:06Z</time>
      </trkpt>
      <trkpt lat="42.62047" lon="-0.18248">
        <ele>1248.8</ele>
        <time>2017-07-30T09:19:07Z</time>
      </trkpt>
      <trkpt lat="42.62047" lon="-0.18255">
        <ele>1248.9</ele>
        <time>2017-07-30T09:19:08Z</time>
      </trkpt>
      <trkpt lat="42.62047" lon="-0.1826">
        <ele>1249</ele>
        <time>2017-07-30T09:19:09Z</time>
      </trkpt>
      <trkpt lat="42.62047" lon="-0.18266">
        <ele>1249</ele>
        <time>2017-07-30T09:19:10Z</time>
      </trkpt>
      <trkpt lat="42.62046" lon="-0.18272">
        <ele>1249.1</ele>
        <time>2017-07-30T09:19:11Z</time>
      </trkpt>
      <trkpt lat="42.62046" lon="-0.18278">
        <ele>1249.2</ele>
        <time>2017-07-30T09:19:12Z</time>
      </trkpt>
      <trkpt lat="42.62046" lon="-0.18284">
        <ele>1249.3</ele>
        <time>2017-07-30T09:19:13Z</time>
      </trkpt>
      <trkpt lat="42.62046" lon="-0.1829">
        <ele>1249.5</ele>
        <time>2017-07-30T09:19:14Z</time>
      </trkpt>
      <trkpt lat="42.62047" lon="-0.18296">
        <ele>1249.6</ele>
        <time>2017-07-30T09:19:15Z</time>
      </trkpt>
      <trkpt lat="42.62047" lon="-0.18302">
        <ele>1249.8</ele>
        <time>2017-07-30T09:19:16Z</time>
      </trkpt>
      <trkpt lat="42.62048" lon="-0.18307">
        <ele>1250</ele>
        <time>2017-07-30T09:19:17Z</time>
      </trkpt>
      <trkpt lat="42.62049" lon="-0.18314">
        <ele>1250.1</ele>
        <time>2017-07-30T09:19:18Z</time>
      </trkpt>
      <trkpt lat="42.6205" lon="-0.1832">
        <ele>1250.3</ele>
        <time>2017-07-30T09:19:19Z</time>
      </trkpt>
      <trkpt lat="42.62052" lon="-0.18326">
        <ele>1250.5</ele>
        <time>2017-07-30T09:19:20Z</time>
      </trkpt>
      <trkpt lat="42.62053" lon="-0.18331">
        <ele>1250.6</ele>
        <time>2017-07-30T09:19:21Z</time>
      </trkpt>
      <trkpt lat="42.62055" lon="-0.18336">
        <ele>1250.7</ele>
        <time>2017-07-30T09:19:22Z</time>
      </trkpt>
      <trkpt lat="42.62057" lon="-0.18342">
        <ele>1250.9</ele>
        <time>2017-07-30T09:19:23Z</time>
      </trkpt>
      <trkpt lat="42.62059" lon="-0.18347">
        <ele>1251.1</ele>
        <time>2017-07-30T09:19:24Z</time>
      </trkpt>
      <trkpt lat="42.62062" lon="-0.18352">
        <ele>1251.3</ele>
        <time>2017-07-30T09:19:25Z</time>
      </trkpt>
      <trkpt lat="42.62064" lon="-0.18357">
        <ele>1251.5</ele>
        <time>2017-07-30T09:19:26Z</time>
      </trkpt>
      <trkpt lat="42.62066" lon="-0.18362">
        <ele>1251.7</ele>
        <time>2017-07-30T09:19:27Z</time>
      </trkpt>
      <trkpt lat="42.62068" lon="-0.18368">
        <ele>1251.9</ele>
        <time>2017-07-30T09:19:28Z</time>
      </trkpt>
      <trkpt lat="42.6207" lon="-0.18373">
        <ele>1252</ele>
        <time>2017-07-30T09:19:29Z</time>
      </trkpt>
      <trkpt lat="42.62073" lon="-0.18377">
        <ele>1252.2</ele>
        <time>2017-07-30T09:19:30Z</time>
      </trkpt>
      <trkpt lat="42.62074" lon="-0.18383">
        <ele>1252.4</ele>
        <time>2017-07-30T09:19:31Z</time>
      </trkpt>
      <trkpt lat="42.62076" lon="-0.18388">
        <ele>1252.5</ele>
        <time>2017-07-30T09:19:32Z</time>
      </trkpt>
      <trkpt lat="42.62078" lon="-0.18393">
        <ele>1252.6</ele>
        <time>2017-07-30T09:19:33Z</time>
      </trkpt>
      <trkpt lat="42.62079" lon="-0.18398">
        <ele>1252.7</ele>
        <time>2017-07-30T09:19:34Z</time>
      </trkpt>
      <trkpt lat="42.6208" lon="-0.18404">
        <ele>1252.8</ele>
        <time>2017-07-30T09:19:35Z</time>
      </trkpt>
      <trkpt lat="42.62081" lon="-0.18409">
        <ele>1252.9</ele>
        <time>2017-07-30T09:19:36Z</time>
      </trkpt>
      <trkpt lat="42.62082" lon="-0.18414">
        <ele>1253</ele>
        <time>2017-07-30T09:19:37Z</time>
      </trkpt>
      <trkpt lat="42.62082" lon="-0.1842">
        <ele>1253.2</ele>
        <time>2017-07-30T09:19:38Z</time>
      </trkpt>
      <trkpt lat="42.62082" lon="-0.18426">
        <ele>1253.4</ele>
        <time>2017-07-30T09:19:39Z</time>
      </trkpt>
      <trkpt lat="42.62082" lon="-0.18432">
        <ele>1253.6</ele>
        <time>2017-07-30T09:19:40Z</time>
      </trkpt>
      <trkpt lat="42.62083" lon="-0.18437">
        <ele>1253.8</ele>
        <time>2017-07-30T09:19:41Z</time>
      </trkpt>
      <trkpt lat="42.62083" lon="-0.18443">
        <ele>1254</ele>
        <time>2017-07-30T09:19:42Z</time>
      </trkpt>
      <trkpt lat="42.62083" lon="-0.18449">
        <ele>1254.2</ele>
        <time>2017-07-30T09:19:43Z</time>
      </trkpt>
      <trkpt lat="42.62083" lon="-0.18455">
        <ele>1254.4</ele>
        <time>2017-07-30T09:19:44Z</time>
      </trkpt>
      <trkpt lat="42.62082" lon="-0.1846">
        <ele>1254.6</ele>
        <time>2017-07-30T09:19:45Z</time>
      </trkpt>
      <trkpt lat="42.62082" lon="-0.18466">
        <ele>1254.7</ele>
        <time>2017-07-30T09:19:46Z</time>
      </trkpt>
      <trkpt lat="42.62082" lon="-0.18472">
        <ele>1254.8</ele>
        <time>2017-07-30T09:19:47Z</time>
      </trkpt>
      <trkpt lat="42.62082" lon="-0.18477">
        <ele>1255</ele>
        <time>2017-07-30T09:19:48Z</time>
      </trkpt>
      <trkpt lat="42.62081" lon="-0.18482">
        <ele>1255.1</ele>
        <time>2017-07-30T09:19:49Z</time>
      </trkpt>
      <trkpt lat="42.6208" lon="-0.18487">
        <ele>1255.2</ele>
        <time>2017-07-30T09:19:50Z</time>
      </trkpt>
      <trkpt lat="42.62079" lon="-0.18492">
        <ele>1255.3</ele>
        <time>2017-07-30T09:19:51Z</time>
      </trkpt>
      <trkpt lat="42.62078" lon="-0.18497">
        <ele>1255.5</ele>
        <time>2017-07-30T09:19:52Z</time>
      </trkpt>
      <trkpt lat="42.62077" lon="-0.18502">
        <ele>1255.7</ele>
        <time>2017-07-30T09:19:53Z</time>
      </trkpt>
      <trkpt lat="42.62076" lon="-0.18506">
        <ele>1255.9</ele>
        <time>2017-07-30T09:19:54Z</time>
      </trkpt>
      <trkpt lat="42.62074" lon="-0.18511">
        <ele>1256.1</ele>
        <time>2017-07-30T09:19:55Z</time>
      </trkpt>
      <trkpt lat="42.62073" lon="-0.18515">
        <ele>1256.3</ele>
        <time>2017-07-30T09:19:56Z</time>
      </trkpt>
      <trkpt lat="42.62071" lon="-0.1852">
        <ele>1256.5</ele>
        <time>2017-07-30T09:19:57Z</time>
      </trkpt>
      <trkpt lat="42.62069" lon="-0.18524">
        <ele>1256.7</ele>
        <time>2017-07-30T09:19:58Z</time>
      </trkpt>
      <trkpt lat="42.62068" lon="-0.18529">
        <ele>1256.8</ele>
        <time>2017-07-30T09:19:59Z</time>
      </trkpt>
      <trkpt lat="42.62066" lon="-0.18533">
        <ele>1256.9</ele>
        <time>2017-07-30T09:20:00Z</time>
      </trkpt>
      <trkpt lat="42.62064" lon="-0.18538">
        <ele>1257</ele>
        <time>2017-07-30T09:20:01Z</time>
      </trkpt>
      <trkpt lat="42.62062" lon="-0.18542">
        <ele>1257.2</ele>
        <time>2017-07-30T09:20:02Z</time>
      </trkpt>
      <trkpt lat="42.6206" lon="-0.18546">
        <ele>1257.4</ele>
        <time>2017-07-30T09:20:03Z</time>
      </trkpt>
      <trkpt lat="42.62059" lon="-0.18551">
        <ele>1257.7</ele>
        <time>2017-07-30T09:20:04Z</time>
      </trkpt>
      <trkpt lat="42.62057" lon="-0.18555">
        <ele>1257.9</ele>
        <time>2017-07-30T09:20:05Z</time>
      </trkpt>
      <trkpt lat="42.62055" lon="-0.1856">
        <ele>1258.2</ele>
        <time>2017-07-30T09:20:06Z</time>
      </trkpt>
      <trkpt lat="42.62054" lon="-0.18564">
        <ele>1258.4</ele>
        <time>2017-07-30T09:20:07Z</time>
      </trkpt>
      <trkpt lat="42.62052" lon="-0.18568">
        <ele>1258.7</ele>
        <time>2017-07-30T09:20:08Z</time>
      </trkpt>
      <trkpt lat="42.6205" lon="-0.18573">
        <ele>1258.9</ele>
        <time>2017-07-30T09:20:09Z</time>
      </trkpt>
      <trkpt lat="42.62049" lon="-0.18577">
        <ele>1259</ele>
        <time>2017-07-30T09:20:10Z</time>
      </trkpt>
      <trkpt lat="42.62047" lon="-0.18581">
        <ele>1259.2</ele>
        <time>2017-07-30T09:20:11Z</time>
      </trkpt>
      <trkpt lat="42.62046" lon="-0.18585">
        <ele>1259.4</ele>
        <time>2017-07-30T09:20:12Z</time>
      </trkpt>
      <trkpt lat="42.62044" lon="-0.18589">
        <ele>1259.6</ele>
        <time>2017-07-30T09:20:13Z</time>
      </trkpt>
      <trkpt lat="42.62043" lon="-0.18592">
        <ele>1259.8</ele>
        <time>2017-07-30T09:20:14Z</time>
      </trkpt>
      <trkpt lat="42.62041" lon="-0.18596">
        <ele>1260.1</ele>
        <time>2017-07-30T09:20:15Z</time>
      </trkpt>
      <trkpt lat="42.6204" lon="-0.186">
        <ele>1260.3</ele>
        <time>2017-07-30T09:20:16Z</time>
      </trkpt>
      <trkpt lat="42.62039" lon="-0.18604">
        <ele>1260.5</ele>
        <time>2017-07-30T09:20:17Z</time>
      </trkpt>
      <trkpt lat="42.62037" lon="-0.18608">
        <ele>1260.7</ele>
        <time>2017-07-30T09:20:18Z</time>
      </trkpt>
      <trkpt lat="42.62036" lon="-0.18612">
        <ele>1261</ele>
        <time>2017-07-30T09:20:19Z</time>
      </trkpt>
      <trkpt lat="42.62034" lon="-0.18616">
        <ele>1261.1</ele>
        <time>2017-07-30T09:20:20Z</time>
      </trkpt>
      <trkpt lat="42.62032" lon="-0.18619">
        <ele>1261.3</ele>
        <time>2017-07-30T09:20:21Z</time>
      </trkpt>
      <trkpt lat="42.62031" lon="-0.18623">
        <ele>1261.5</ele>
        <time>2017-07-30T09:20:22Z</time>
      </trkpt>
      <trkpt lat="42.62029" lon="-0.18627">
        <ele>1261.7</ele>
        <time>2017-07-30T09:20:23Z</time>
      </trkpt>
      <trkpt lat="42.62028" lon="-0.1863">
        <ele>1262</ele>
        <time>2017-07-30T09:20:24Z</time>
      </trkpt>
      <trkpt lat="42.62026" lon="-0.18634">
        <ele>1262.2</ele>
        <time>2017-07-30T09:20:25Z</time>
      </trkpt>
      <trkpt lat="42.62025" lon="-0.18638">
        <ele>1262.5</ele>
        <time>2017-07-30T09:20:26Z</time>
      </trkpt>
      <trkpt lat="42.62023" lon="-0.18642">
        <ele>1262.7</ele>
        <time>2017-07-30T09:20:27Z</time>
      </trkpt>
      <trkpt lat="42.62022" lon="-0.18646">
        <ele>1263</ele>
        <time>2017-07-30T09:20:28Z</time>
      </trkpt>
      <trkpt lat="42.62021" lon="-0.18649">
        <ele>1263.2</ele>
        <time>2017-07-30T09:20:29Z</time>
      </trkpt>
      <trkpt lat="42.6202" lon="-0.18653">
        <ele>1263.4</ele>
        <time>2017-07-30T09:20:30Z</time>
      </trkpt>
      <trkpt lat="42.62018" lon="-0.18657">
        <ele>1263.6</ele>
        <time>2017-07-30T09:20:31Z</time>
      </trkpt>
      <trkpt lat="42.62017" lon="-0.18661">
        <ele>1263.8</ele>
        <time>2017-07-30T09:20:32Z</time>
      </trkpt>
      <trkpt lat="42.62016" lon="-0.18665">
        <ele>1264.1</ele>
        <time>2017-07-30T09:20:33Z</time>
      </trkpt>
      <trkpt lat="42.62016" lon="-0.18669">
        <ele>1264.3</ele>
        <time>2017-07-30T09:20:34Z</time>
      </trkpt>
      <trkpt lat="42.62015" lon="-0.18673">
        <ele>1264.6</ele>
        <time>2017-07-30T09:20:35Z</time>
      </trkpt>
      <trkpt lat="42.62014" lon="-0.18677">
        <ele>1264.9</ele>
        <time>2017-07-30T09:20:36Z</time>
      </trkpt>
      <trkpt lat="42.62014" lon="-0.1868">
        <ele>1265.2</ele>
        <time>2017-07-30T09:20:37Z</time>
      </trkpt>
      <trkpt lat="42.62013" lon="-0.18684">
        <ele>1265.5</ele>
        <time>2017-07-30T09:20:38Z</time>
      </trkpt>
      <trkpt lat="42.62012" lon="-0.18688">
        <ele>1265.6</ele>
        <time>2017-07-30T09:20:39Z</time>
      </trkpt>
      <trkpt lat="42.62012" lon="-0.18692">
        <ele>1265.8</ele>
        <time>2017-07-30T09:20:40Z</time>
      </trkpt>
      <trkpt lat="42.62012" lon="-0.18697">
        <ele>1266</ele>
        <time>2017-07-30T09:20:41Z</time>
      </trkpt>
      <trkpt lat="42.62012" lon="-0.18701">
        <ele>1266.2</ele>
        <time>2017-07-30T09:20:42Z</time>
      </trkpt>
      <trkpt lat="42.62012" lon="-0.18705">
        <ele>1266.5</ele>
        <time>2017-07-30T09:20:43Z</time>
      </trkpt>
      <trkpt lat="42.62012" lon="-0.18709">
        <ele>1266.8</ele>
        <time>2017-07-30T09:20:44Z</time>
      </trkpt>
      <trkpt lat="42.62013" lon="-0.18713">
        <ele>1267</ele>
        <time>2017-07-30T09:20:45Z</time>
      </trkpt>
      <trkpt lat="42.62014" lon="-0.18718">
        <ele>1267.3</ele>
        <time>2017-07-30T09:20:46Z</time>
      </trkpt>
      <trkpt lat="42.62014" lon="-0.18722">
        <ele>1267.6</ele>
        <time>2017-07-30T09:20:47Z</time>
      </trkpt>
      <trkpt lat="42.62015" lon="-0.18726">
        <ele>1267.8</ele>
        <time>2017-07-30T09:20:48Z</time>
      </trkpt>
      <trkpt lat="42.62017" lon="-0.1873">
        <ele>1268</ele>
        <time>2017-07-30T09:20:49Z</time>
      </trkpt>
      <trkpt lat="42.62018" lon="-0.18734">
        <ele>1268.1</ele>
        <time>2017-07-30T09:20:50Z</time>
      </trkpt>
      <trkpt lat="42.62019" lon="-0.18737">
        <ele>1268.3</ele>
        <time>2017-07-30T09:20:51Z</time>
      </trkpt>
      <trkpt lat="42.6202" lon="-0.18741">
        <ele>1268.4</ele>
        <time>2017-07-30T09:20:52Z</time>
      </trkpt>
      <trkpt lat="42.62021" lon="-0.18745">
        <ele>1268.6</ele>
        <time>2017-07-30T09:20:53Z</time>
      </trkpt>
      <trkpt lat="42.62022" lon="-0.18749">
        <ele>1268.8</ele>
        <time>2017-07-30T09:20:54Z</time>
      </trkpt>
      <trkpt lat="42.62023" lon="-0.18752">
        <ele>1269.1</ele>
        <time>2017-07-30T09:20:55Z</time>
      </trkpt>
      <trkpt lat="42.62024" lon="-0.18756">
        <ele>1269.3</ele>
        <time>2017-07-30T09:20:56Z</time>
      </trkpt>
      <trkpt lat="42.62025" lon="-0.1876">
        <ele>1269.6</ele>
        <time>2017-07-30T09:20:57Z</time>
      </trkpt>
      <trkpt lat="42.62026" lon="-0.18763">
        <ele>1269.8</ele>
        <time>2017-07-30T09:20:58Z</time>
      </trkpt>
      <trkpt lat="42.62027" lon="-0.1877">
        <ele>1270.1</ele>
        <time>2017-07-30T09:21:00Z</time>
      </trkpt>
      <trkpt lat="42.62028" lon="-0.18774">
        <ele>1270.2</ele>
        <time>2017-07-30T09:21:01Z</time>
      </trkpt>
      <trkpt lat="42.62029" lon="-0.18781">
        <ele>1270.4</ele>
        <time>2017-07-30T09:21:03Z</time>
      </trkpt>
      <trkpt lat="42.62029" lon="-0.18784">
        <ele>1270.5</ele>
        <time>2017-07-30T09:21:04Z</time>
      </trkpt>
      <trkpt lat="42.6203" lon="-0.18788">
        <ele>1270.7</ele>
        <time>2017-07-30T09:21:05Z</time>
      </trkpt>
      <trkpt lat="42.6203" lon="-0.18792">
        <ele>1270.9</ele>
        <time>2017-07-30T09:21:06Z</time>
      </trkpt>
      <trkpt lat="42.6203" lon="-0.18796">
        <ele>1271.1</ele>
        <time>2017-07-30T09:21:07Z</time>
      </trkpt>
      <trkpt lat="42.6203" lon="-0.188">
        <ele>1271.4</ele>
        <time>2017-07-30T09:21:08Z</time>
      </trkpt>
      <trkpt lat="42.62029" lon="-0.18805">
        <ele>1271.6</ele>
        <time>2017-07-30T09:21:09Z</time>
      </trkpt>
      <trkpt lat="42.62028" lon="-0.18809">
        <ele>1271.8</ele>
        <time>2017-07-30T09:21:10Z</time>
      </trkpt>
      <trkpt lat="42.62027" lon="-0.18813">
        <ele>1271.9</ele>
        <time>2017-07-30T09:21:11Z</time>
      </trkpt>
      <trkpt lat="42.62026" lon="-0.18817">
        <ele>1272</ele>
        <time>2017-07-30T09:21:12Z</time>
      </trkpt>
      <trkpt lat="42.62025" lon="-0.18821">
        <ele>1272.1</ele>
        <time>2017-07-30T09:21:13Z</time>
      </trkpt>
      <trkpt lat="42.62023" lon="-0.18824">
        <ele>1272.2</ele>
        <time>2017-07-30T09:21:14Z</time>
      </trkpt>
      <trkpt lat="42.62022" lon="-0.18827">
        <ele>1272.3</ele>
        <time>2017-07-30T09:21:15Z</time>
      </trkpt>
      <trkpt lat="42.6202" lon="-0.18831">
        <ele>1272.4</ele>
        <time>2017-07-30T09:21:16Z</time>
      </trkpt>
      <trkpt lat="42.62018" lon="-0.18834">
        <ele>1272.5</ele>
        <time>2017-07-30T09:21:17Z</time>
      </trkpt>
      <trkpt lat="42.62016" lon="-0.18837">
        <ele>1272.8</ele>
        <time>2017-07-30T09:21:18Z</time>
      </trkpt>
      <trkpt lat="42.62014" lon="-0.1884">
        <ele>1273</ele>
        <time>2017-07-30T09:21:19Z</time>
      </trkpt>
      <trkpt lat="42.62012" lon="-0.18843">
        <ele>1273.2</ele>
        <time>2017-07-30T09:21:20Z</time>
      </trkpt>
      <trkpt lat="42.6201" lon="-0.18846">
        <ele>1273.4</ele>
        <time>2017-07-30T09:21:21Z</time>
      </trkpt>
      <trkpt lat="42.62008" lon="-0.1885">
        <ele>1273.7</ele>
        <time>2017-07-30T09:21:22Z</time>
      </trkpt>
      <trkpt lat="42.62007" lon="-0.18853">
        <ele>1273.9</ele>
        <time>2017-07-30T09:21:23Z</time>
      </trkpt>
      <trkpt lat="42.62005" lon="-0.18856">
        <ele>1274.1</ele>
        <time>2017-07-30T09:21:24Z</time>
      </trkpt>
      <trkpt lat="42.62004" lon="-0.18859">
        <ele>1274.4</ele>
        <time>2017-07-30T09:21:25Z</time>
      </trkpt>
      <trkpt lat="42.62002" lon="-0.18863">
        <ele>1274.6</ele>
        <time>2017-07-30T09:21:26Z</time>
      </trkpt>
      <trkpt lat="42.62001" lon="-0.18866">
        <ele>1274.7</ele>
        <time>2017-07-30T09:21:27Z</time>
      </trkpt>
      <trkpt lat="42.62" lon="-0.1887">
        <ele>1274.9</ele>
        <time>2017-07-30T09:21:28Z</time>
      </trkpt>
      <trkpt lat="42.61999" lon="-0.18873">
        <ele>1275.1</ele>
        <time>2017-07-30T09:21:29Z</time>
      </trkpt>
      <trkpt lat="42.61999" lon="-0.18877">
        <ele>1275.3</ele>
        <time>2017-07-30T09:21:30Z</time>
      </trkpt>
      <trkpt lat="42.61998" lon="-0.18881">
        <ele>1275.5</ele>
        <time>2017-07-30T09:21:31Z</time>
      </trkpt>
      <trkpt lat="42.61997" lon="-0.18884">
        <ele>1275.8</ele>
        <time>2017-07-30T09:21:32Z</time>
      </trkpt>
      <trkpt lat="42.61997" lon="-0.18888">
        <ele>1276</ele>
        <time>2017-07-30T09:21:33Z</time>
      </trkpt>
      <trkpt lat="42.61996" lon="-0.18892">
        <ele>1276.2</ele>
        <time>2017-07-30T09:21:34Z</time>
      </trkpt>
      <trkpt lat="42.61996" lon="-0.18895">
        <ele>1276.4</ele>
        <time>2017-07-30T09:21:35Z</time>
      </trkpt>
      <trkpt lat="42.61995" lon="-0.18899">
        <ele>1276.6</ele>
        <time>2017-07-30T09:21:36Z</time>
      </trkpt>
      <trkpt lat="42.61995" lon="-0.18903">
        <ele>1276.8</ele>
        <time>2017-07-30T09:21:37Z</time>
      </trkpt>
      <trkpt lat="42.61994" lon="-0.18907">
        <ele>1276.9</ele>
        <time>2017-07-30T09:21:38Z</time>
      </trkpt>
      <trkpt lat="42.61994" lon="-0.1891">
        <ele>1277.1</ele>
        <time>2017-07-30T09:21:39Z</time>
      </trkpt>
      <trkpt lat="42.61993" lon="-0.18917">
        <ele>1277.5</ele>
        <time>2017-07-30T09:21:41Z</time>
      </trkpt>
      <trkpt lat="42.61992" lon="-0.18924">
        <ele>1277.9</ele>
        <time>2017-07-30T09:21:43Z</time>
      </trkpt>
      <trkpt lat="42.6199" lon="-0.18931">
        <ele>1278.3</ele>
        <time>2017-07-30T09:21:45Z</time>
      </trkpt>
      <trkpt lat="42.61989" lon="-0.18938">
        <ele>1278.7</ele>
        <time>2017-07-30T09:21:47Z</time>
      </trkpt>
      <trkpt lat="42.61988" lon="-0.18945">
        <ele>1279.1</ele>
        <time>2017-07-30T09:21:49Z</time>
      </trkpt>
      <trkpt lat="42.61988" lon="-0.18952">
        <ele>1279.6</ele>
        <time>2017-07-30T09:21:51Z</time>
      </trkpt>
      <trkpt lat="42.61988" lon="-0.18959">
        <ele>1280</ele>
        <time>2017-07-30T09:21:53Z</time>
      </trkpt>
      <trkpt lat="42.61987" lon="-0.18967">
        <ele>1280.5</ele>
        <time>2017-07-30T09:21:55Z</time>
      </trkpt>
      <trkpt lat="42.61988" lon="-0.18974">
        <ele>1280.8</ele>
        <time>2017-07-30T09:21:57Z</time>
      </trkpt>
      <trkpt lat="42.61988" lon="-0.18981">
        <ele>1281.1</ele>
        <time>2017-07-30T09:21:59Z</time>
      </trkpt>
      <trkpt lat="42.61989" lon="-0.18984">
        <ele>1281.2</ele>
        <time>2017-07-30T09:22:00Z</time>
      </trkpt>
      <trkpt lat="42.61989" lon="-0.18988">
        <ele>1281.4</ele>
        <time>2017-07-30T09:22:01Z</time>
      </trkpt>
      <trkpt lat="42.6199" lon="-0.18992">
        <ele>1281.6</ele>
        <time>2017-07-30T09:22:02Z</time>
      </trkpt>
      <trkpt lat="42.61991" lon="-0.18999">
        <ele>1282.1</ele>
        <time>2017-07-30T09:22:04Z</time>
      </trkpt>
      <trkpt lat="42.61992" lon="-0.19006">
        <ele>1282.5</ele>
        <time>2017-07-30T09:22:06Z</time>
      </trkpt>
      <trkpt lat="42.61993" lon="-0.19009">
        <ele>1282.7</ele>
        <time>2017-07-30T09:22:07Z</time>
      </trkpt>
      <trkpt lat="42.61994" lon="-0.19013">
        <ele>1282.9</ele>
        <time>2017-07-30T09:22:08Z</time>
      </trkpt>
      <trkpt lat="42.61994" lon="-0.19017">
        <ele>1283</ele>
        <time>2017-07-30T09:22:09Z</time>
      </trkpt>
      <trkpt lat="42.61995" lon="-0.1902">
        <ele>1283.2</ele>
        <time>2017-07-30T09:22:10Z</time>
      </trkpt>
      <trkpt lat="42.61996" lon="-0.19024">
        <ele>1283.4</ele>
        <time>2017-07-30T09:22:11Z</time>
      </trkpt>
      <trkpt lat="42.61998" lon="-0.1903">
        <ele>1283.8</ele>
        <time>2017-07-30T09:22:13Z</time>
      </trkpt>
      <trkpt lat="42.61999" lon="-0.19037">
        <ele>1284.3</ele>
        <time>2017-07-30T09:22:15Z</time>
      </trkpt>
      <trkpt lat="42.62001" lon="-0.19044">
        <ele>1284.7</ele>
        <time>2017-07-30T09:22:17Z</time>
      </trkpt>
      <trkpt lat="42.62002" lon="-0.19047">
        <ele>1284.9</ele>
        <time>2017-07-30T09:22:18Z</time>
      </trkpt>
      <trkpt lat="42.62003" lon="-0.19051">
        <ele>1285</ele>
        <time>2017-07-30T09:22:19Z</time>
      </trkpt>
      <trkpt lat="42.62004" lon="-0.19054">
        <ele>1285.1</ele>
        <time>2017-07-30T09:22:20Z</time>
      </trkpt>
      <trkpt lat="42.62005" lon="-0.19058">
        <ele>1285.3</ele>
        <time>2017-07-30T09:22:21Z</time>
      </trkpt>
      <trkpt lat="42.62006" lon="-0.19061">
        <ele>1285.4</ele>
        <time>2017-07-30T09:22:22Z</time>
      </trkpt>
      <trkpt lat="42.62007" lon="-0.19065">
        <ele>1285.7</ele>
        <time>2017-07-30T09:22:23Z</time>
      </trkpt>
      <trkpt lat="42.62008" lon="-0.19068">
        <ele>1285.9</ele>
        <time>2017-07-30T09:22:24Z</time>
      </trkpt>
      <trkpt lat="42.62009" lon="-0.19071">
        <ele>1286.2</ele>
        <time>2017-07-30T09:22:25Z</time>
      </trkpt>
      <trkpt lat="42.62011" lon="-0.19075">
        <ele>1286.4</ele>
        <time>2017-07-30T09:22:26Z</time>
      </trkpt>
      <trkpt lat="42.62013" lon="-0.19078">
        <ele>1286.7</ele>
        <time>2017-07-30T09:22:27Z</time>
      </trkpt>
      <trkpt lat="42.62015" lon="-0.19081">
        <ele>1286.9</ele>
        <time>2017-07-30T09:22:28Z</time>
      </trkpt>
      <trkpt lat="42.62017" lon="-0.19084">
        <ele>1287.1</ele>
        <time>2017-07-30T09:22:29Z</time>
      </trkpt>
      <trkpt lat="42.62019" lon="-0.19087">
        <ele>1287.3</ele>
        <time>2017-07-30T09:22:30Z</time>
      </trkpt>
      <trkpt lat="42.62022" lon="-0.1909">
        <ele>1287.4</ele>
        <time>2017-07-30T09:22:31Z</time>
      </trkpt>
      <trkpt lat="42.62024" lon="-0.19092">
        <ele>1287.6</ele>
        <time>2017-07-30T09:22:32Z</time>
      </trkpt>
      <trkpt lat="42.62027" lon="-0.19095">
        <ele>1287.9</ele>
        <time>2017-07-30T09:22:33Z</time>
      </trkpt>
      <trkpt lat="42.62029" lon="-0.19097">
        <ele>1288.2</ele>
        <time>2017-07-30T09:22:34Z</time>
      </trkpt>
      <trkpt lat="42.62031" lon="-0.191">
        <ele>1288.5</ele>
        <time>2017-07-30T09:22:35Z</time>
      </trkpt>
      <trkpt lat="42.62034" lon="-0.19102">
        <ele>1288.7</ele>
        <time>2017-07-30T09:22:36Z</time>
      </trkpt>
      <trkpt lat="42.62038" lon="-0.19105">
        <ele>1289</ele>
        <time>2017-07-30T09:22:38Z</time>
      </trkpt>
      <trkpt lat="42.62042" lon="-0.19109">
        <ele>1289.3</ele>
        <time>2017-07-30T09:22:40Z</time>
      </trkpt>
      <trkpt lat="42.62046" lon="-0.19113">
        <ele>1289.5</ele>
        <time>2017-07-30T09:22:42Z</time>
      </trkpt>
      <trkpt lat="42.62051" lon="-0.19117">
        <ele>1290</ele>
        <time>2017-07-30T09:22:44Z</time>
      </trkpt>
      <trkpt lat="42.62055" lon="-0.1912">
        <ele>1290.5</ele>
        <time>2017-07-30T09:22:46Z</time>
      </trkpt>
      <trkpt lat="42.6206" lon="-0.19123">
        <ele>1290.9</ele>
        <time>2017-07-30T09:22:48Z</time>
      </trkpt>
      <trkpt lat="42.62064" lon="-0.19126">
        <ele>1291.1</ele>
        <time>2017-07-30T09:22:50Z</time>
      </trkpt>
      <trkpt lat="42.62069" lon="-0.19129">
        <ele>1291.4</ele>
        <time>2017-07-30T09:22:52Z</time>
      </trkpt>
      <trkpt lat="42.62073" lon="-0.19133">
        <ele>1291.6</ele>
        <time>2017-07-30T09:22:54Z</time>
      </trkpt>
      <trkpt lat="42.62077" lon="-0.19136">
        <ele>1291.9</ele>
        <time>2017-07-30T09:22:56Z</time>
      </trkpt>
      <trkpt lat="42.62081" lon="-0.19139">
        <ele>1292.3</ele>
        <time>2017-07-30T09:22:58Z</time>
      </trkpt>
      <trkpt lat="42.62085" lon="-0.19143">
        <ele>1292.7</ele>
        <time>2017-07-30T09:23:00Z</time>
      </trkpt>
      <trkpt lat="42.62089" lon="-0.19146">
        <ele>1293.1</ele>
        <time>2017-07-30T09:23:02Z</time>
      </trkpt>
      <trkpt lat="42.62094" lon="-0.19149">
        <ele>1293.4</ele>
        <time>2017-07-30T09:23:04Z</time>
      </trkpt>
      <trkpt lat="42.62098" lon="-0.19152">
        <ele>1293.7</ele>
        <time>2017-07-30T09:23:06Z</time>
      </trkpt>
      <trkpt lat="42.62102" lon="-0.19156">
        <ele>1294.1</ele>
        <time>2017-07-30T09:23:08Z</time>
      </trkpt>
      <trkpt lat="42.62106" lon="-0.1916">
        <ele>1294.5</ele>
        <time>2017-07-30T09:23:10Z</time>
      </trkpt>
      <trkpt lat="42.62109" lon="-0.19165">
        <ele>1295</ele>
        <time>2017-07-30T09:23:12Z</time>
      </trkpt>
      <trkpt lat="42.62113" lon="-0.1917">
        <ele>1295.2</ele>
        <time>2017-07-30T09:23:14Z</time>
      </trkpt>
      <trkpt lat="42.62116" lon="-0.19175">
        <ele>1295.5</ele>
        <time>2017-07-30T09:23:16Z</time>
      </trkpt>
      <trkpt lat="42.6212" lon="-0.1918">
        <ele>1296</ele>
        <time>2017-07-30T09:23:18Z</time>
      </trkpt>
      <trkpt lat="42.62124" lon="-0.19185">
        <ele>1296.4</ele>
        <time>2017-07-30T09:23:20Z</time>
      </trkpt>
      <trkpt lat="42.62127" lon="-0.1919">
        <ele>1296.9</ele>
        <time>2017-07-30T09:23:22Z</time>
      </trkpt>
      <trkpt lat="42.62131" lon="-0.19195">
        <ele>1297.2</ele>
        <time>2017-07-30T09:23:24Z</time>
      </trkpt>
      <trkpt lat="42.62134" lon="-0.192">
        <ele>1297.4</ele>
        <time>2017-07-30T09:23:26Z</time>
      </trkpt>
      <trkpt lat="42.62138" lon="-0.19205">
        <ele>1297.7</ele>
        <time>2017-07-30T09:23:28Z</time>
      </trkpt>
      <trkpt lat="42.62142" lon="-0.1921">
        <ele>1298</ele>
        <time>2017-07-30T09:23:30Z</time>
      </trkpt>
      <trkpt lat="42.62145" lon="-0.19215">
        <ele>1298.4</ele>
        <time>2017-07-30T09:23:32Z</time>
      </trkpt>
      <trkpt lat="42.62149" lon="-0.19219">
        <ele>1298.9</ele>
        <time>2017-07-30T09:23:34Z</time>
      </trkpt>
      <trkpt lat="42.62153" lon="-0.19224">
        <ele>1299.3</ele>
        <time>2017-07-30T09:23:36Z</time>
      </trkpt>
      <trkpt lat="42.62157" lon="-0.19229">
        <ele>1299.6</ele>
        <time>2017-07-30T09:23:38Z</time>
      </trkpt>
      <trkpt lat="42.6216" lon="-0.19234">
        <ele>1299.8</ele>
        <time>2017-07-30T09:23:40Z</time>
      </trkpt>
      <trkpt lat="42.62164" lon="-0.19239">
        <ele>1300.2</ele>
        <time>2017-07-30T09:23:42Z</time>
      </trkpt>
      <trkpt lat="42.62168" lon="-0.19243">
        <ele>1300.6</ele>
        <time>2017-07-30T09:23:44Z</time>
      </trkpt>
      <trkpt lat="42.62171" lon="-0.19248">
        <ele>1301</ele>
        <time>2017-07-30T09:23:46Z</time>
      </trkpt>
      <trkpt lat="42.62175" lon="-0.19254">
        <ele>1301.4</ele>
        <time>2017-07-30T09:23:48Z</time>
      </trkpt>
      <trkpt lat="42.62178" lon="-0.19259">
        <ele>1301.6</ele>
        <time>2017-07-30T09:23:50Z</time>
      </trkpt>
      <trkpt lat="42.62181" lon="-0.19264">
        <ele>1301.9</ele>
        <time>2017-07-30T09:23:52Z</time>
      </trkpt>
      <trkpt lat="42.62185" lon="-0.19269">
        <ele>1302.2</ele>
        <time>2017-07-30T09:23:54Z</time>
      </trkpt>
      <trkpt lat="42.62189" lon="-0.19275">
        <ele>1302.7</ele>
        <time>2017-07-30T09:23:56Z</time>
      </trkpt>
      <trkpt lat="42.6219" lon="-0.19278">
        <ele>1302.9</ele>
        <time>2017-07-30T09:23:57Z</time>
      </trkpt>
      <trkpt lat="42.62192" lon="-0.1928">
        <ele>1303.2</ele>
        <time>2017-07-30T09:23:58Z</time>
      </trkpt>
      <trkpt lat="42.62194" lon="-0.19283">
        <ele>1303.4</ele>
        <time>2017-07-30T09:23:59Z</time>
      </trkpt>
      <trkpt lat="42.62197" lon="-0.19289">
        <ele>1303.6</ele>
        <time>2017-07-30T09:24:01Z</time>
      </trkpt>
      <trkpt lat="42.62198" lon="-0.19292">
        <ele>1303.7</ele>
        <time>2017-07-30T09:24:02Z</time>
      </trkpt>
      <trkpt lat="42.622" lon="-0.19296">
        <ele>1303.8</ele>
        <time>2017-07-30T09:24:03Z</time>
      </trkpt>
      <trkpt lat="42.62202" lon="-0.19299">
        <ele>1304</ele>
        <time>2017-07-30T09:24:04Z</time>
      </trkpt>
      <trkpt lat="42.62203" lon="-0.19302">
        <ele>1304.1</ele>
        <time>2017-07-30T09:24:05Z</time>
      </trkpt>
      <trkpt lat="42.62205" lon="-0.19305">
        <ele>1304.2</ele>
        <time>2017-07-30T09:24:06Z</time>
      </trkpt>
      <trkpt lat="42.62208" lon="-0.19311">
        <ele>1304.7</ele>
        <time>2017-07-30T09:24:08Z</time>
      </trkpt>
      <trkpt lat="42.62209" lon="-0.19314">
        <ele>1304.9</ele>
        <time>2017-07-30T09:24:09Z</time>
      </trkpt>
      <trkpt lat="42.62211" lon="-0.19317">
        <ele>1305.1</ele>
        <time>2017-07-30T09:24:10Z</time>
      </trkpt>
      <trkpt lat="42.62212" lon="-0.1932">
        <ele>1305.2</ele>
        <time>2017-07-30T09:24:11Z</time>
      </trkpt>
      <trkpt lat="42.62214" lon="-0.19323">
        <ele>1305.4</ele>
        <time>2017-07-30T09:24:12Z</time>
      </trkpt>
      <trkpt lat="42.62216" lon="-0.19327">
        <ele>1305.5</ele>
        <time>2017-07-30T09:24:13Z</time>
      </trkpt>
      <trkpt lat="42.62217" lon="-0.1933">
        <ele>1305.5</ele>
        <time>2017-07-30T09:24:14Z</time>
      </trkpt>
      <trkpt lat="42.62219" lon="-0.19333">
        <ele>1305.6</ele>
        <time>2017-07-30T09:24:15Z</time>
      </trkpt>
      <trkpt lat="42.6222" lon="-0.19336">
        <ele>1305.7</ele>
        <time>2017-07-30T09:24:16Z</time>
      </trkpt>
      <trkpt lat="42.62222" lon="-0.19339">
        <ele>1305.7</ele>
        <time>2017-07-30T09:24:17Z</time>
      </trkpt>
      <trkpt lat="42.62224" lon="-0.19342">
        <ele>1305.8</ele>
        <time>2017-07-30T09:24:18Z</time>
      </trkpt>
      <trkpt lat="42.62225" lon="-0.19345">
        <ele>1305.9</ele>
        <time>2017-07-30T09:24:19Z</time>
      </trkpt>
      <trkpt lat="42.62227" lon="-0.19349">
        <ele>1306</ele>
        <time>2017-07-30T09:24:20Z</time>
      </trkpt>
      <trkpt lat="42.62228" lon="-0.19352">
        <ele>1306</ele>
        <time>2017-07-30T09:24:21Z</time>
      </trkpt>
      <trkpt lat="42.6223" lon="-0.19355">
        <ele>1306.2</ele>
        <time>2017-07-30T09:24:22Z</time>
      </trkpt>
      <trkpt lat="42.62232" lon="-0.19359">
        <ele>1306.3</ele>
        <time>2017-07-30T09:24:23Z</time>
      </trkpt>
      <trkpt lat="42.62234" lon="-0.19362">
        <ele>1306.5</ele>
        <time>2017-07-30T09:24:24Z</time>
      </trkpt>
      <trkpt lat="42.62237" lon="-0.19365">
        <ele>1306.6</ele>
        <time>2017-07-30T09:24:25Z</time>
      </trkpt>
      <trkpt lat="42.62239" lon="-0.19367">
        <ele>1306.7</ele>
        <time>2017-07-30T09:24:26Z</time>
      </trkpt>
      <trkpt lat="42.62241" lon="-0.1937">
        <ele>1306.8</ele>
        <time>2017-07-30T09:24:27Z</time>
      </trkpt>
      <trkpt lat="42.62243" lon="-0.19373">
        <ele>1307.1</ele>
        <time>2017-07-30T09:24:28Z</time>
      </trkpt>
      <trkpt lat="42.62245" lon="-0.19376">
        <ele>1307.3</ele>
        <time>2017-07-30T09:24:29Z</time>
      </trkpt>
      <trkpt lat="42.62247" lon="-0.1938">
        <ele>1307.5</ele>
        <time>2017-07-30T09:24:30Z</time>
      </trkpt>
      <trkpt lat="42.62249" lon="-0.19383">
        <ele>1307.7</ele>
        <time>2017-07-30T09:24:31Z</time>
      </trkpt>
      <trkpt lat="42.62252" lon="-0.19386">
        <ele>1307.9</ele>
        <time>2017-07-30T09:24:32Z</time>
      </trkpt>
      <trkpt lat="42.62254" lon="-0.19388">
        <ele>1308</ele>
        <time>2017-07-30T09:24:33Z</time>
      </trkpt>
      <trkpt lat="42.62256" lon="-0.19391">
        <ele>1308.1</ele>
        <time>2017-07-30T09:24:34Z</time>
      </trkpt>
      <trkpt lat="42.62258" lon="-0.19394">
        <ele>1308.2</ele>
        <time>2017-07-30T09:24:35Z</time>
      </trkpt>
      <trkpt lat="42.6226" lon="-0.19398">
        <ele>1308.3</ele>
        <time>2017-07-30T09:24:36Z</time>
      </trkpt>
      <trkpt lat="42.62262" lon="-0.19401">
        <ele>1308.5</ele>
        <time>2017-07-30T09:24:37Z</time>
      </trkpt>
      <trkpt lat="42.62264" lon="-0.19405">
        <ele>1308.6</ele>
        <time>2017-07-30T09:24:38Z</time>
      </trkpt>
      <trkpt lat="42.62265" lon="-0.19408">
        <ele>1308.7</ele>
        <time>2017-07-30T09:24:39Z</time>
      </trkpt>
      <trkpt lat="42.62266" lon="-0.19412">
        <ele>1308.9</ele>
        <time>2017-07-30T09:24:40Z</time>
      </trkpt>
      <trkpt lat="42.62267" lon="-0.19416">
        <ele>1309.1</ele>
        <time>2017-07-30T09:24:41Z</time>
      </trkpt>
      <trkpt lat="42.62268" lon="-0.19421">
        <ele>1309.4</ele>
        <time>2017-07-30T09:24:42Z</time>
      </trkpt>
      <trkpt lat="42.62269" lon="-0.19425">
        <ele>1309.6</ele>
        <time>2017-07-30T09:24:43Z</time>
      </trkpt>
      <trkpt lat="42.6227" lon="-0.19429">
        <ele>1309.9</ele>
        <time>2017-07-30T09:24:44Z</time>
      </trkpt>
      <trkpt lat="42.6227" lon="-0.19433">
        <ele>1310.1</ele>
        <time>2017-07-30T09:24:45Z</time>
      </trkpt>
      <trkpt lat="42.62271" lon="-0.19438">
        <ele>1310.3</ele>
        <time>2017-07-30T09:24:46Z</time>
      </trkpt>
      <trkpt lat="42.62271" lon="-0.19442">
        <ele>1310.4</ele>
        <time>2017-07-30T09:24:47Z</time>
      </trkpt>
      <trkpt lat="42.6227" lon="-0.19447">
        <ele>1310.4</ele>
        <time>2017-07-30T09:24:48Z</time>
      </trkpt>
      <trkpt lat="42.6227" lon="-0.19451">
        <ele>1310.5</ele>
        <time>2017-07-30T09:24:49Z</time>
      </trkpt>
      <trkpt lat="42.62269" lon="-0.19456">
        <ele>1310.6</ele>
        <time>2017-07-30T09:24:50Z</time>
      </trkpt>
      <trkpt lat="42.62268" lon="-0.19461">
        <ele>1310.6</ele>
        <time>2017-07-30T09:24:51Z</time>
      </trkpt>
      <trkpt lat="42.62267" lon="-0.19465">
        <ele>1310.7</ele>
        <time>2017-07-30T09:24:52Z</time>
      </trkpt>
      <trkpt lat="42.62265" lon="-0.1947">
        <ele>1310.8</ele>
        <time>2017-07-30T09:24:53Z</time>
      </trkpt>
      <trkpt lat="42.62263" lon="-0.19474">
        <ele>1310.8</ele>
        <time>2017-07-30T09:24:54Z</time>
      </trkpt>
      <trkpt lat="42.62261" lon="-0.19479">
        <ele>1310.9</ele>
        <time>2017-07-30T09:24:55Z</time>
      </trkpt>
      <trkpt lat="42.62259" lon="-0.19483">
        <ele>1310.9</ele>
        <time>2017-07-30T09:24:56Z</time>
      </trkpt>
      <trkpt lat="42.62256" lon="-0.19488">
        <ele>1311</ele>
        <time>2017-07-30T09:24:57Z</time>
      </trkpt>
      <trkpt lat="42.62253" lon="-0.19492">
        <ele>1311</ele>
        <time>2017-07-30T09:24:58Z</time>
      </trkpt>
      <trkpt lat="42.6225" lon="-0.19496">
        <ele>1311.1</ele>
        <time>2017-07-30T09:24:59Z</time>
      </trkpt>
      <trkpt lat="42.62247" lon="-0.19499">
        <ele>1311.1</ele>
        <time>2017-07-30T09:25:00Z</time>
      </trkpt>
      <trkpt lat="42.62243" lon="-0.19501">
        <ele>1311.2</ele>
        <time>2017-07-30T09:25:01Z</time>
      </trkpt>
      <trkpt lat="42.62239" lon="-0.19503">
        <ele>1311.2</ele>
        <time>2017-07-30T09:25:02Z</time>
      </trkpt>
      <trkpt lat="42.62235" lon="-0.19505">
        <ele>1311.3</ele>
        <time>2017-07-30T09:25:03Z</time>
      </trkpt>
      <trkpt lat="42.62231" lon="-0.19506">
        <ele>1311.4</ele>
        <time>2017-07-30T09:25:04Z</time>
      </trkpt>
      <trkpt lat="42.62227" lon="-0.19506">
        <ele>1311.5</ele>
        <time>2017-07-30T09:25:05Z</time>
      </trkpt>
      <trkpt lat="42.62223" lon="-0.19506">
        <ele>1311.7</ele>
        <time>2017-07-30T09:25:06Z</time>
      </trkpt>
      <trkpt lat="42.62218" lon="-0.19506">
        <ele>1312</ele>
        <time>2017-07-30T09:25:07Z</time>
      </trkpt>
      <trkpt lat="42.62214" lon="-0.19505">
        <ele>1312.3</ele>
        <time>2017-07-30T09:25:08Z</time>
      </trkpt>
      <trkpt lat="42.6221" lon="-0.19505">
        <ele>1312.5</ele>
        <time>2017-07-30T09:25:09Z</time>
      </trkpt>
      <trkpt lat="42.62206" lon="-0.19503">
        <ele>1312.8</ele>
        <time>2017-07-30T09:25:10Z</time>
      </trkpt>
      <trkpt lat="42.62203" lon="-0.19502">
        <ele>1313.1</ele>
        <time>2017-07-30T09:25:11Z</time>
      </trkpt>
      <trkpt lat="42.62199" lon="-0.19501">
        <ele>1313.2</ele>
        <time>2017-07-30T09:25:12Z</time>
      </trkpt>
      <trkpt lat="42.62196" lon="-0.195">
        <ele>1313.4</ele>
        <time>2017-07-30T09:25:13Z</time>
      </trkpt>
      <trkpt lat="42.62193" lon="-0.19498">
        <ele>1313.5</ele>
        <time>2017-07-30T09:25:14Z</time>
      </trkpt>
      <trkpt lat="42.62189" lon="-0.19497">
        <ele>1313.7</ele>
        <time>2017-07-30T09:25:15Z</time>
      </trkpt>
      <trkpt lat="42.62186" lon="-0.19495">
        <ele>1313.8</ele>
        <time>2017-07-30T09:25:16Z</time>
      </trkpt>
      <trkpt lat="42.62183" lon="-0.19494">
        <ele>1313.9</ele>
        <time>2017-07-30T09:25:17Z</time>
      </trkpt>
      <trkpt lat="42.62181" lon="-0.19492">
        <ele>1314</ele>
        <time>2017-07-30T09:25:18Z</time>
      </trkpt>
      <trkpt lat="42.62178" lon="-0.19491">
        <ele>1314.1</ele>
        <time>2017-07-30T09:25:19Z</time>
      </trkpt>
      <trkpt lat="42.62175" lon="-0.1949">
        <ele>1314.4</ele>
        <time>2017-07-30T09:25:20Z</time>
      </trkpt>
      <trkpt lat="42.62172" lon="-0.19489">
        <ele>1314.6</ele>
        <time>2017-07-30T09:25:21Z</time>
      </trkpt>
      <trkpt lat="42.6217" lon="-0.19488">
        <ele>1314.8</ele>
        <time>2017-07-30T09:25:22Z</time>
      </trkpt>
      <trkpt lat="42.62167" lon="-0.19487">
        <ele>1315.1</ele>
        <time>2017-07-30T09:25:23Z</time>
      </trkpt>
      <trkpt lat="42.62162" lon="-0.19485">
        <ele>1315.5</ele>
        <time>2017-07-30T09:25:25Z</time>
      </trkpt>
      <trkpt lat="42.62157" lon="-0.19483">
        <ele>1315.8</ele>
        <time>2017-07-30T09:25:27Z</time>
      </trkpt>
      <trkpt lat="42.62152" lon="-0.19481">
        <ele>1316.1</ele>
        <time>2017-07-30T09:25:29Z</time>
      </trkpt>
      <trkpt lat="42.62147" lon="-0.19479">
        <ele>1316.4</ele>
        <time>2017-07-30T09:25:31Z</time>
      </trkpt>
      <trkpt lat="42.62143" lon="-0.19476">
        <ele>1316.9</ele>
        <time>2017-07-30T09:25:33Z</time>
      </trkpt>
      <trkpt lat="42.62138" lon="-0.19474">
        <ele>1317.3</ele>
        <time>2017-07-30T09:25:35Z</time>
      </trkpt>
      <trkpt lat="42.62133" lon="-0.19471">
        <ele>1317.8</ele>
        <time>2017-07-30T09:25:37Z</time>
      </trkpt>
      <trkpt lat="42.62128" lon="-0.19468">
        <ele>1318.1</ele>
        <time>2017-07-30T09:25:39Z</time>
      </trkpt>
      <trkpt lat="42.62124" lon="-0.19466">
        <ele>1318.3</ele>
        <time>2017-07-30T09:25:41Z</time>
      </trkpt>
      <trkpt lat="42.62119" lon="-0.19463">
        <ele>1318.5</ele>
        <time>2017-07-30T09:25:43Z</time>
      </trkpt>
      <trkpt lat="42.62115" lon="-0.1946">
        <ele>1318.7</ele>
        <time>2017-07-30T09:25:45Z</time>
      </trkpt>
      <trkpt lat="42.62111" lon="-0.19457">
        <ele>1319.2</ele>
        <time>2017-07-30T09:25:47Z</time>
      </trkpt>
      <trkpt lat="42.62106" lon="-0.19455">
        <ele>1319.6</ele>
        <time>2017-07-30T09:25:49Z</time>
      </trkpt>
      <trkpt lat="42.62102" lon="-0.19452">
        <ele>1320.1</ele>
        <time>2017-07-30T09:25:51Z</time>
      </trkpt>
      <trkpt lat="42.62097" lon="-0.19449">
        <ele>1320.3</ele>
        <time>2017-07-30T09:25:53Z</time>
      </trkpt>
      <trkpt lat="42.62092" lon="-0.19447">
        <ele>1320.6</ele>
        <time>2017-07-30T09:25:55Z</time>
      </trkpt>
      <trkpt lat="42.62087" lon="-0.19445">
        <ele>1320.8</ele>
        <time>2017-07-30T09:25:57Z</time>
      </trkpt>
      <trkpt lat="42.62082" lon="-0.19443">
        <ele>1321.1</ele>
        <time>2017-07-30T09:25:59Z</time>
      </trkpt>
      <trkpt lat="42.62078" lon="-0.19441">
        <ele>1321.5</ele>
        <time>2017-07-30T09:26:01Z</time>
      </trkpt>
      <trkpt lat="42.62073" lon="-0.19439">
        <ele>1322</ele>
        <time>2017-07-30T09:26:03Z</time>
      </trkpt>
      <trkpt lat="42.62068" lon="-0.19436">
        <ele>1322.5</ele>
        <time>2017-07-30T09:26:05Z</time>
      </trkpt>
      <trkpt lat="42.62063" lon="-0.19434">
        <ele>1322.7</ele>
        <time>2017-07-30T09:26:07Z</time>
      </trkpt>
      <trkpt lat="42.62058" lon="-0.19432">
        <ele>1323</ele>
        <time>2017-07-30T09:26:09Z</time>
      </trkpt>
      <trkpt lat="42.62054" lon="-0.1943">
        <ele>1323.3</ele>
        <time>2017-07-30T09:26:11Z</time>
      </trkpt>
      <trkpt lat="42.62049" lon="-0.19428">
        <ele>1323.6</ele>
        <time>2017-07-30T09:26:13Z</time>
      </trkpt>
      <trkpt lat="42.62044" lon="-0.19425">
        <ele>1324</ele>
        <time>2017-07-30T09:26:15Z</time>
      </trkpt>
      <trkpt lat="42.6204" lon="-0.19423">
        <ele>1324.5</ele>
        <time>2017-07-30T09:26:17Z</time>
      </trkpt>
      <trkpt lat="42.62035" lon="-0.1942">
        <ele>1325</ele>
        <time>2017-07-30T09:26:19Z</time>
      </trkpt>
      <trkpt lat="42.6203" lon="-0.19418">
        <ele>1325.3</ele>
        <time>2017-07-30T09:26:21Z</time>
      </trkpt>
      <trkpt lat="42.62026" lon="-0.19415">
        <ele>1325.6</ele>
        <time>2017-07-30T09:26:23Z</time>
      </trkpt>
      <trkpt lat="42.62021" lon="-0.19413">
        <ele>1326.1</ele>
        <time>2017-07-30T09:26:25Z</time>
      </trkpt>
      <trkpt lat="42.62017" lon="-0.1941">
        <ele>1326.6</ele>
        <time>2017-07-30T09:26:27Z</time>
      </trkpt>
      <trkpt lat="42.62012" lon="-0.19407">
        <ele>1327</ele>
        <time>2017-07-30T09:26:29Z</time>
      </trkpt>
      <trkpt lat="42.62008" lon="-0.19404">
        <ele>1327.4</ele>
        <time>2017-07-30T09:26:31Z</time>
      </trkpt>
      <trkpt lat="42.62004" lon="-0.19401">
        <ele>1327.6</ele>
        <time>2017-07-30T09:26:33Z</time>
      </trkpt>
      <trkpt lat="42.61999" lon="-0.19399">
        <ele>1327.8</ele>
        <time>2017-07-30T09:26:35Z</time>
      </trkpt>
      <trkpt lat="42.61995" lon="-0.19397">
        <ele>1328</ele>
        <time>2017-07-30T09:26:37Z</time>
      </trkpt>
      <trkpt lat="42.6199" lon="-0.19395">
        <ele>1328.4</ele>
        <time>2017-07-30T09:26:39Z</time>
      </trkpt>
      <trkpt lat="42.61985" lon="-0.19393">
        <ele>1328.9</ele>
        <time>2017-07-30T09:26:41Z</time>
      </trkpt>
      <trkpt lat="42.6198" lon="-0.19393">
        <ele>1329.4</ele>
        <time>2017-07-30T09:26:43Z</time>
      </trkpt>
      <trkpt lat="42.61975" lon="-0.19392">
        <ele>1329.8</ele>
        <time>2017-07-30T09:26:45Z</time>
      </trkpt>
      <trkpt lat="42.6197" lon="-0.19392">
        <ele>1330.1</ele>
        <time>2017-07-30T09:26:47Z</time>
      </trkpt>
      <trkpt lat="42.61965" lon="-0.19392">
        <ele>1330.4</ele>
        <time>2017-07-30T09:26:49Z</time>
      </trkpt>
      <trkpt lat="42.61961" lon="-0.19393">
        <ele>1330.9</ele>
        <time>2017-07-30T09:26:51Z</time>
      </trkpt>
      <trkpt lat="42.61956" lon="-0.19394">
        <ele>1331.5</ele>
        <time>2017-07-30T09:26:53Z</time>
      </trkpt>
      <trkpt lat="42.61952" lon="-0.19396">
        <ele>1332</ele>
        <time>2017-07-30T09:26:55Z</time>
      </trkpt>
      <trkpt lat="42.61947" lon="-0.19399">
        <ele>1332.4</ele>
        <time>2017-07-30T09:26:57Z</time>
      </trkpt>
      <trkpt lat="42.61942" lon="-0.19402">
        <ele>1332.9</ele>
        <time>2017-07-30T09:26:59Z</time>
      </trkpt>
      <trkpt lat="42.61938" lon="-0.19406">
        <ele>1333.4</ele>
        <time>2017-07-30T09:27:01Z</time>
      </trkpt>
      <trkpt lat="42.61935" lon="-0.19411">
        <ele>1333.9</ele>
        <time>2017-07-30T09:27:03Z</time>
      </trkpt>
      <trkpt lat="42.61931" lon="-0.19416">
        <ele>1334.4</ele>
        <time>2017-07-30T09:27:05Z</time>
      </trkpt>
      <trkpt lat="42.61927" lon="-0.19421">
        <ele>1335</ele>
        <time>2017-07-30T09:27:07Z</time>
      </trkpt>
      <trkpt lat="42.61923" lon="-0.19426">
        <ele>1335.5</ele>
        <time>2017-07-30T09:27:09Z</time>
      </trkpt>
      <trkpt lat="42.6192" lon="-0.19432">
        <ele>1336</ele>
        <time>2017-07-30T09:27:11Z</time>
      </trkpt>
      <trkpt lat="42.61917" lon="-0.19438">
        <ele>1336.5</ele>
        <time>2017-07-30T09:27:13Z</time>
      </trkpt>
      <trkpt lat="42.61914" lon="-0.19443">
        <ele>1336.9</ele>
        <time>2017-07-30T09:27:15Z</time>
      </trkpt>
      <trkpt lat="42.61911" lon="-0.19449">
        <ele>1337.2</ele>
        <time>2017-07-30T09:27:17Z</time>
      </trkpt>
      <trkpt lat="42.61908" lon="-0.19455">
        <ele>1337.6</ele>
        <time>2017-07-30T09:27:19Z</time>
      </trkpt>
      <trkpt lat="42.61906" lon="-0.19458">
        <ele>1337.8</ele>
        <time>2017-07-30T09:27:20Z</time>
      </trkpt>
      <trkpt lat="42.61903" lon="-0.19464">
        <ele>1338.3</ele>
        <time>2017-07-30T09:27:22Z</time>
      </trkpt>
      <trkpt lat="42.619" lon="-0.19469">
        <ele>1338.7</ele>
        <time>2017-07-30T09:27:24Z</time>
      </trkpt>
      <trkpt lat="42.61897" lon="-0.19475">
        <ele>1339.1</ele>
        <time>2017-07-30T09:27:26Z</time>
      </trkpt>
      <trkpt lat="42.61895" lon="-0.19478">
        <ele>1339.2</ele>
        <time>2017-07-30T09:27:27Z</time>
      </trkpt>
      <trkpt lat="42.61894" lon="-0.19481">
        <ele>1339.4</ele>
        <time>2017-07-30T09:27:28Z</time>
      </trkpt>
      <trkpt lat="42.61891" lon="-0.19487">
        <ele>1339.6</ele>
        <time>2017-07-30T09:27:30Z</time>
      </trkpt>
      <trkpt lat="42.61889" lon="-0.1949">
        <ele>1339.8</ele>
        <time>2017-07-30T09:27:31Z</time>
      </trkpt>
      <trkpt lat="42.61888" lon="-0.19493">
        <ele>1340.1</ele>
        <time>2017-07-30T09:27:32Z</time>
      </trkpt>
      <trkpt lat="42.61886" lon="-0.19496">
        <ele>1340.3</ele>
        <time>2017-07-30T09:27:33Z</time>
      </trkpt>
      <trkpt lat="42.61885" lon="-0.19499">
        <ele>1340.6</ele>
        <time>2017-07-30T09:27:34Z</time>
      </trkpt>
      <trkpt lat="42.61882" lon="-0.19505">
        <ele>1341.1</ele>
        <time>2017-07-30T09:27:36Z</time>
      </trkpt>
      <trkpt lat="42.6188" lon="-0.19512">
        <ele>1341.4</ele>
        <time>2017-07-30T09:27:38Z</time>
      </trkpt>
      <trkpt lat="42.61878" lon="-0.19519">
        <ele>1341.7</ele>
        <time>2017-07-30T09:27:40Z</time>
      </trkpt>
      <trkpt lat="42.61877" lon="-0.19523">
        <ele>1341.9</ele>
        <time>2017-07-30T09:27:41Z</time>
      </trkpt>
      <trkpt lat="42.61877" lon="-0.19526">
        <ele>1342.2</ele>
        <time>2017-07-30T09:27:42Z</time>
      </trkpt>
      <trkpt lat="42.61876" lon="-0.1953">
        <ele>1342.4</ele>
        <time>2017-07-30T09:27:43Z</time>
      </trkpt>
      <trkpt lat="42.61875" lon="-0.19537">
        <ele>1342.9</ele>
        <time>2017-07-30T09:27:45Z</time>
      </trkpt>
      <trkpt lat="42.61875" lon="-0.19544">
        <ele>1343.4</ele>
        <time>2017-07-30T09:27:47Z</time>
      </trkpt>
      <trkpt lat="42.61875" lon="-0.19551">
        <ele>1343.9</ele>
        <time>2017-07-30T09:27:49Z</time>
      </trkpt>
      <trkpt lat="42.61875" lon="-0.19558">
        <ele>1344.4</ele>
        <time>2017-07-30T09:27:51Z</time>
      </trkpt>
      <trkpt lat="42.61875" lon="-0.19565">
        <ele>1344.9</ele>
        <time>2017-07-30T09:27:53Z</time>
      </trkpt>
      <trkpt lat="42.61876" lon="-0.19572">
        <ele>1345.4</ele>
        <time>2017-07-30T09:27:55Z</time>
      </trkpt>
      <trkpt lat="42.61876" lon="-0.19579">
        <ele>1345.9</ele>
        <time>2017-07-30T09:27:57Z</time>
      </trkpt>
      <trkpt lat="42.61877" lon="-0.19585">
        <ele>1346.3</ele>
        <time>2017-07-30T09:27:59Z</time>
      </trkpt>
      <trkpt lat="42.61877" lon="-0.19592">
        <ele>1346.8</ele>
        <time>2017-07-30T09:28:01Z</time>
      </trkpt>
      <trkpt lat="42.61878" lon="-0.19598">
        <ele>1347.2</ele>
        <time>2017-07-30T09:28:03Z</time>
      </trkpt>
      <trkpt lat="42.61879" lon="-0.19605">
        <ele>1347.7</ele>
        <time>2017-07-30T09:28:05Z</time>
      </trkpt>
      <trkpt lat="42.6188" lon="-0.19612">
        <ele>1348.2</ele>
        <time>2017-07-30T09:28:07Z</time>
      </trkpt>
      <trkpt lat="42.61881" lon="-0.19619">
        <ele>1348.7</ele>
        <time>2017-07-30T09:28:09Z</time>
      </trkpt>
      <trkpt lat="42.61881" lon="-0.19626">
        <ele>1349.1</ele>
        <time>2017-07-30T09:28:11Z</time>
      </trkpt>
      <trkpt lat="42.61882" lon="-0.19633">
        <ele>1349.4</ele>
        <time>2017-07-30T09:28:13Z</time>
      </trkpt>
      <trkpt lat="42.61883" lon="-0.1964">
        <ele>1349.7</ele>
        <time>2017-07-30T09:28:15Z</time>
      </trkpt>
      <trkpt lat="42.61884" lon="-0.19648">
        <ele>1350.2</ele>
        <time>2017-07-30T09:28:17Z</time>
      </trkpt>
      <trkpt lat="42.61884" lon="-0.19651">
        <ele>1350.5</ele>
        <time>2017-07-30T09:28:18Z</time>
      </trkpt>
      <trkpt lat="42.61885" lon="-0.19655">
        <ele>1350.8</ele>
        <time>2017-07-30T09:28:19Z</time>
      </trkpt>
      <trkpt lat="42.61885" lon="-0.19659">
        <ele>1351</ele>
        <time>2017-07-30T09:28:20Z</time>
      </trkpt>
      <trkpt lat="42.61886" lon="-0.19662">
        <ele>1351.2</ele>
        <time>2017-07-30T09:28:21Z</time>
      </trkpt>
      <trkpt lat="42.61887" lon="-0.19666">
        <ele>1351.3</ele>
        <time>2017-07-30T09:28:22Z</time>
      </trkpt>
      <trkpt lat="42.61887" lon="-0.1967">
        <ele>1351.4</ele>
        <time>2017-07-30T09:28:23Z</time>
      </trkpt>
      <trkpt lat="42.61888" lon="-0.19673">
        <ele>1351.5</ele>
        <time>2017-07-30T09:28:24Z</time>
      </trkpt>
      <trkpt lat="42.61889" lon="-0.19677">
        <ele>1351.6</ele>
        <time>2017-07-30T09:28:25Z</time>
      </trkpt>
      <trkpt lat="42.61889" lon="-0.19681">
        <ele>1351.8</ele>
        <time>2017-07-30T09:28:26Z</time>
      </trkpt>
      <trkpt lat="42.6189" lon="-0.19684">
        <ele>1351.9</ele>
        <time>2017-07-30T09:28:27Z</time>
      </trkpt>
      <trkpt lat="42.61891" lon="-0.19691">
        <ele>1352.4</ele>
        <time>2017-07-30T09:28:29Z</time>
      </trkpt>
      <trkpt lat="42.61893" lon="-0.19698">
        <ele>1353</ele>
        <time>2017-07-30T09:28:31Z</time>
      </trkpt>
      <trkpt lat="42.61894" lon="-0.19706">
        <ele>1353.4</ele>
        <time>2017-07-30T09:28:33Z</time>
      </trkpt>
      <trkpt lat="42.61894" lon="-0.19709">
        <ele>1353.6</ele>
        <time>2017-07-30T09:28:34Z</time>
      </trkpt>
      <trkpt lat="42.61895" lon="-0.19716">
        <ele>1353.8</ele>
        <time>2017-07-30T09:28:36Z</time>
      </trkpt>
      <trkpt lat="42.61896" lon="-0.19723">
        <ele>1354</ele>
        <time>2017-07-30T09:28:38Z</time>
      </trkpt>
      <trkpt lat="42.61896" lon="-0.1973">
        <ele>1354.3</ele>
        <time>2017-07-30T09:28:40Z</time>
      </trkpt>
      <trkpt lat="42.61896" lon="-0.19734">
        <ele>1354.4</ele>
        <time>2017-07-30T09:28:41Z</time>
      </trkpt>
      <trkpt lat="42.61896" lon="-0.19741">
        <ele>1354.9</ele>
        <time>2017-07-30T09:28:43Z</time>
      </trkpt>
      <trkpt lat="42.61896" lon="-0.19745">
        <ele>1355.1</ele>
        <time>2017-07-30T09:28:44Z</time>
      </trkpt>
      <trkpt lat="42.61896" lon="-0.19748">
        <ele>1355.4</ele>
        <time>2017-07-30T09:28:45Z</time>
      </trkpt>
      <trkpt lat="42.61895" lon="-0.19755">
        <ele>1355.9</ele>
        <time>2017-07-30T09:28:47Z</time>
      </trkpt>
      <trkpt lat="42.61895" lon="-0.19763">
        <ele>1356.2</ele>
        <time>2017-07-30T09:28:49Z</time>
      </trkpt>
      <trkpt lat="42.61894" lon="-0.19766">
        <ele>1356.4</ele>
        <time>2017-07-30T09:28:50Z</time>
      </trkpt>
      <trkpt lat="42.61893" lon="-0.19773">
        <ele>1356.7</ele>
        <time>2017-07-30T09:28:52Z</time>
      </trkpt>
      <trkpt lat="42.61891" lon="-0.1978">
        <ele>1357.2</ele>
        <time>2017-07-30T09:28:54Z</time>
      </trkpt>
      <trkpt lat="42.6189" lon="-0.19787">
        <ele>1357.7</ele>
        <time>2017-07-30T09:28:56Z</time>
      </trkpt>
      <trkpt lat="42.61889" lon="-0.19791">
        <ele>1357.9</ele>
        <time>2017-07-30T09:28:57Z</time>
      </trkpt>
      <trkpt lat="42.61887" lon="-0.19798">
        <ele>1358.3</ele>
        <time>2017-07-30T09:28:59Z</time>
      </trkpt>
      <trkpt lat="42.61886" lon="-0.19804">
        <ele>1358.6</ele>
        <time>2017-07-30T09:29:01Z</time>
      </trkpt>
      <trkpt lat="42.61884" lon="-0.19811">
        <ele>1358.8</ele>
        <time>2017-07-30T09:29:03Z</time>
      </trkpt>
      <trkpt lat="42.61882" lon="-0.19818">
        <ele>1359.1</ele>
        <time>2017-07-30T09:29:05Z</time>
      </trkpt>
      <trkpt lat="42.61881" lon="-0.19825">
        <ele>1359.5</ele>
        <time>2017-07-30T09:29:07Z</time>
      </trkpt>
      <trkpt lat="42.61881" lon="-0.19832">
        <ele>1360</ele>
        <time>2017-07-30T09:29:09Z</time>
      </trkpt>
      <trkpt lat="42.6188" lon="-0.19839">
        <ele>1360.5</ele>
        <time>2017-07-30T09:29:11Z</time>
      </trkpt>
      <trkpt lat="42.61878" lon="-0.19845">
        <ele>1360.8</ele>
        <time>2017-07-30T09:29:13Z</time>
      </trkpt>
      <trkpt lat="42.61876" lon="-0.19852">
        <ele>1361.1</ele>
        <time>2017-07-30T09:29:15Z</time>
      </trkpt>
      <trkpt lat="42.61874" lon="-0.19859">
        <ele>1361.4</ele>
        <time>2017-07-30T09:29:17Z</time>
      </trkpt>
      <trkpt lat="42.61873" lon="-0.19862">
        <ele>1361.6</ele>
        <time>2017-07-30T09:29:18Z</time>
      </trkpt>
      <trkpt lat="42.61872" lon="-0.19866">
        <ele>1361.8</ele>
        <time>2017-07-30T09:29:19Z</time>
      </trkpt>
      <trkpt lat="42.61871" lon="-0.19873">
        <ele>1362.3</ele>
        <time>2017-07-30T09:29:21Z</time>
      </trkpt>
      <trkpt lat="42.6187" lon="-0.19876">
        <ele>1362.6</ele>
        <time>2017-07-30T09:29:22Z</time>
      </trkpt>
      <trkpt lat="42.61869" lon="-0.19883">
        <ele>1363.1</ele>
        <time>2017-07-30T09:29:24Z</time>
      </trkpt>
      <trkpt lat="42.61868" lon="-0.19891">
        <ele>1363.4</ele>
        <time>2017-07-30T09:29:26Z</time>
      </trkpt>
      <trkpt lat="42.61868" lon="-0.19894">
        <ele>1363.6</ele>
        <time>2017-07-30T09:29:27Z</time>
      </trkpt>
      <trkpt lat="42.61867" lon="-0.19898">
        <ele>1363.8</ele>
        <time>2017-07-30T09:29:28Z</time>
      </trkpt>
      <trkpt lat="42.61867" lon="-0.19902">
        <ele>1363.9</ele>
        <time>2017-07-30T09:29:29Z</time>
      </trkpt>
      <trkpt lat="42.61867" lon="-0.19906">
        <ele>1364.1</ele>
        <time>2017-07-30T09:29:30Z</time>
      </trkpt>
      <trkpt lat="42.61867" lon="-0.19909">
        <ele>1364.3</ele>
        <time>2017-07-30T09:29:31Z</time>
      </trkpt>
      <trkpt lat="42.61867" lon="-0.19913">
        <ele>1364.5</ele>
        <time>2017-07-30T09:29:32Z</time>
      </trkpt>
      <trkpt lat="42.61867" lon="-0.19917">
        <ele>1364.8</ele>
        <time>2017-07-30T09:29:33Z</time>
      </trkpt>
      <trkpt lat="42.61868" lon="-0.19921">
        <ele>1365</ele>
        <time>2017-07-30T09:29:34Z</time>
      </trkpt>
      <trkpt lat="42.61868" lon="-0.19925">
        <ele>1365.3</ele>
        <time>2017-07-30T09:29:35Z</time>
      </trkpt>
      <trkpt lat="42.61869" lon="-0.19929">
        <ele>1365.5</ele>
        <time>2017-07-30T09:29:36Z</time>
      </trkpt>
      <trkpt lat="42.61869" lon="-0.19934">
        <ele>1365.6</ele>
        <time>2017-07-30T09:29:37Z</time>
      </trkpt>
      <trkpt lat="42.61869" lon="-0.19938">
        <ele>1365.7</ele>
        <time>2017-07-30T09:29:38Z</time>
      </trkpt>
      <trkpt lat="42.61869" lon="-0.19943">
        <ele>1365.8</ele>
        <time>2017-07-30T09:29:39Z</time>
      </trkpt>
      <trkpt lat="42.61869" lon="-0.19947">
        <ele>1365.9</ele>
        <time>2017-07-30T09:29:40Z</time>
      </trkpt>
      <trkpt lat="42.61868" lon="-0.19952">
        <ele>1366</ele>
        <time>2017-07-30T09:29:41Z</time>
      </trkpt>
      <trkpt lat="42.61866" lon="-0.19956">
        <ele>1366.1</ele>
        <time>2017-07-30T09:29:42Z</time>
      </trkpt>
      <trkpt lat="42.61865" lon="-0.1996">
        <ele>1366.2</ele>
        <time>2017-07-30T09:29:43Z</time>
      </trkpt>
      <trkpt lat="42.61863" lon="-0.19964">
        <ele>1366.4</ele>
        <time>2017-07-30T09:29:44Z</time>
      </trkpt>
      <trkpt lat="42.6186" lon="-0.19968">
        <ele>1366.7</ele>
        <time>2017-07-30T09:29:45Z</time>
      </trkpt>
      <trkpt lat="42.61857" lon="-0.19972">
        <ele>1366.9</ele>
        <time>2017-07-30T09:29:46Z</time>
      </trkpt>
      <trkpt lat="42.61854" lon="-0.19976">
        <ele>1367.2</ele>
        <time>2017-07-30T09:29:47Z</time>
      </trkpt>
      <trkpt lat="42.61851" lon="-0.19979">
        <ele>1367.4</ele>
        <time>2017-07-30T09:29:48Z</time>
      </trkpt>
      <trkpt lat="42.61847" lon="-0.19981">
        <ele>1367.7</ele>
        <time>2017-07-30T09:29:49Z</time>
      </trkpt>
      <trkpt lat="42.61843" lon="-0.19983">
        <ele>1367.9</ele>
        <time>2017-07-30T09:29:50Z</time>
      </trkpt>
      <trkpt lat="42.61839" lon="-0.19984">
        <ele>1368.1</ele>
        <time>2017-07-30T09:29:51Z</time>
      </trkpt>
      <trkpt lat="42.61835" lon="-0.19984">
        <ele>1368.2</ele>
        <time>2017-07-30T09:29:52Z</time>
      </trkpt>
      <trkpt lat="42.61831" lon="-0.19984">
        <ele>1368.2</ele>
        <time>2017-07-30T09:29:53Z</time>
      </trkpt>
      <trkpt lat="42.61826" lon="-0.19983">
        <ele>1368.2</ele>
        <time>2017-07-30T09:29:54Z</time>
      </trkpt>
      <trkpt lat="42.61822" lon="-0.19982">
        <ele>1368.3</ele>
        <time>2017-07-30T09:29:55Z</time>
      </trkpt>
      <trkpt lat="42.61818" lon="-0.1998">
        <ele>1368.3</ele>
        <time>2017-07-30T09:29:56Z</time>
      </trkpt>
      <trkpt lat="42.61814" lon="-0.19977">
        <ele>1368.4</ele>
        <time>2017-07-30T09:29:57Z</time>
      </trkpt>
      <trkpt lat="42.6181" lon="-0.19974">
        <ele>1368.4</ele>
        <time>2017-07-30T09:29:58Z</time>
      </trkpt>
      <trkpt lat="42.61806" lon="-0.19971">
        <ele>1368.4</ele>
        <time>2017-07-30T09:29:59Z</time>
      </trkpt>
      <trkpt lat="42.61802" lon="-0.19968">
        <ele>1368.5</ele>
        <time>2017-07-30T09:30:00Z</time>
      </trkpt>
      <trkpt lat="42.61798" lon="-0.19964">
        <ele>1368.5</ele>
        <time>2017-07-30T09:30:01Z</time>
      </trkpt>
      <trkpt lat="42.61795" lon="-0.19961">
        <ele>1368.5</ele>
        <time>2017-07-30T09:30:02Z</time>
      </trkpt>
      <trkpt lat="42.61792" lon="-0.19957">
        <ele>1368.6</ele>
        <time>2017-07-30T09:30:03Z</time>
      </trkpt>
      <trkpt lat="42.61789" lon="-0.19952">
        <ele>1368.6</ele>
        <time>2017-07-30T09:30:04Z</time>
      </trkpt>
      <trkpt lat="42.61786" lon="-0.19948">
        <ele>1368.7</ele>
        <time>2017-07-30T09:30:05Z</time>
      </trkpt>
      <trkpt lat="42.61783" lon="-0.19943">
        <ele>1368.7</ele>
        <time>2017-07-30T09:30:06Z</time>
      </trkpt>
      <trkpt lat="42.61781" lon="-0.19938">
        <ele>1368.8</ele>
        <time>2017-07-30T09:30:07Z</time>
      </trkpt>
      <trkpt lat="42.61778" lon="-0.19933">
        <ele>1368.8</ele>
        <time>2017-07-30T09:30:08Z</time>
      </trkpt>
      <trkpt lat="42.61776" lon="-0.19928">
        <ele>1368.9</ele>
        <time>2017-07-30T09:30:09Z</time>
      </trkpt>
      <trkpt lat="42.61775" lon="-0.1992">
        <ele>1369</ele>
        <time>2017-07-30T09:30:10Z</time>
      </trkpt>
      <trkpt lat="42.61773" lon="-0.19913">
        <ele>1369.1</ele>
        <time>2017-07-30T09:30:11Z</time>
      </trkpt>
      <trkpt lat="42.61771" lon="-0.19906">
        <ele>1369.2</ele>
        <time>2017-07-30T09:30:12Z</time>
      </trkpt>
      <trkpt lat="42.61769" lon="-0.199">
        <ele>1369.3</ele>
        <time>2017-07-30T09:30:13Z</time>
      </trkpt>
      <trkpt lat="42.61768" lon="-0.19895">
        <ele>1369.3</ele>
        <time>2017-07-30T09:30:14Z</time>
      </trkpt>
      <trkpt lat="42.61766" lon="-0.1989">
        <ele>1369.4</ele>
        <time>2017-07-30T09:30:15Z</time>
      </trkpt>
      <trkpt lat="42.61763" lon="-0.19884">
        <ele>1369.6</ele>
        <time>2017-07-30T09:30:16Z</time>
      </trkpt>
      <trkpt lat="42.61761" lon="-0.19879">
        <ele>1369.9</ele>
        <time>2017-07-30T09:30:17Z</time>
      </trkpt>
      <trkpt lat="42.61759" lon="-0.19874">
        <ele>1370.1</ele>
        <time>2017-07-30T09:30:18Z</time>
      </trkpt>
      <trkpt lat="42.61758" lon="-0.19868">
        <ele>1370.3</ele>
        <time>2017-07-30T09:30:19Z</time>
      </trkpt>
      <trkpt lat="42.61756" lon="-0.19863">
        <ele>1370.5</ele>
        <time>2017-07-30T09:30:20Z</time>
      </trkpt>
      <trkpt lat="42.61754" lon="-0.19859">
        <ele>1370.7</ele>
        <time>2017-07-30T09:30:21Z</time>
      </trkpt>
      <trkpt lat="42.61751" lon="-0.19855">
        <ele>1370.7</ele>
        <time>2017-07-30T09:30:22Z</time>
      </trkpt>
      <trkpt lat="42.61749" lon="-0.19851">
        <ele>1370.8</ele>
        <time>2017-07-30T09:30:23Z</time>
      </trkpt>
      <trkpt lat="42.61746" lon="-0.19847">
        <ele>1370.9</ele>
        <time>2017-07-30T09:30:24Z</time>
      </trkpt>
      <trkpt lat="42.61744" lon="-0.19843">
        <ele>1371</ele>
        <time>2017-07-30T09:30:25Z</time>
      </trkpt>
      <trkpt lat="42.61741" lon="-0.19838">
        <ele>1371.1</ele>
        <time>2017-07-30T09:30:26Z</time>
      </trkpt>
      <trkpt lat="42.61739" lon="-0.19834">
        <ele>1371.2</ele>
        <time>2017-07-30T09:30:27Z</time>
      </trkpt>
      <trkpt lat="42.61737" lon="-0.19829">
        <ele>1371.3</ele>
        <time>2017-07-30T09:30:28Z</time>
      </trkpt>
      <trkpt lat="42.61734" lon="-0.19825">
        <ele>1371.4</ele>
        <time>2017-07-30T09:30:29Z</time>
      </trkpt>
      <trkpt lat="42.61732" lon="-0.1982">
        <ele>1371.5</ele>
        <time>2017-07-30T09:30:30Z</time>
      </trkpt>
      <trkpt lat="42.61729" lon="-0.19816">
        <ele>1371.5</ele>
        <time>2017-07-30T09:30:31Z</time>
      </trkpt>
      <trkpt lat="42.61727" lon="-0.19812">
        <ele>1371.6</ele>
        <time>2017-07-30T09:30:32Z</time>
      </trkpt>
      <trkpt lat="42.61724" lon="-0.19808">
        <ele>1371.7</ele>
        <time>2017-07-30T09:30:33Z</time>
      </trkpt>
      <trkpt lat="42.61721" lon="-0.19805">
        <ele>1371.9</ele>
        <time>2017-07-30T09:30:34Z</time>
      </trkpt>
      <trkpt lat="42.61718" lon="-0.19801">
        <ele>1372.1</ele>
        <time>2017-07-30T09:30:35Z</time>
      </trkpt>
      <trkpt lat="42.61714" lon="-0.19798">
        <ele>1372.4</ele>
        <time>2017-07-30T09:30:36Z</time>
      </trkpt>
      <trkpt lat="42.61711" lon="-0.19796">
        <ele>1372.7</ele>
        <time>2017-07-30T09:30:37Z</time>
      </trkpt>
      <trkpt lat="42.61708" lon="-0.19794">
        <ele>1373</ele>
        <time>2017-07-30T09:30:38Z</time>
      </trkpt>
      <trkpt lat="42.61704" lon="-0.19792">
        <ele>1373.2</ele>
        <time>2017-07-30T09:30:39Z</time>
      </trkpt>
      <trkpt lat="42.61701" lon="-0.19792">
        <ele>1373.4</ele>
        <time>2017-07-30T09:30:40Z</time>
      </trkpt>
      <trkpt lat="42.61698" lon="-0.19792">
        <ele>1373.6</ele>
        <time>2017-07-30T09:30:41Z</time>
      </trkpt>
      <trkpt lat="42.61695" lon="-0.19793">
        <ele>1373.7</ele>
        <time>2017-07-30T09:30:42Z</time>
      </trkpt>
      <trkpt lat="42.61692" lon="-0.19794">
        <ele>1373.9</ele>
        <time>2017-07-30T09:30:43Z</time>
      </trkpt>
      <trkpt lat="42.61689" lon="-0.19795">
        <ele>1374.1</ele>
        <time>2017-07-30T09:30:44Z</time>
      </trkpt>
      <trkpt lat="42.61686" lon="-0.19797">
        <ele>1374.4</ele>
        <time>2017-07-30T09:30:45Z</time>
      </trkpt>
      <trkpt lat="42.61683" lon="-0.19798">
        <ele>1374.7</ele>
        <time>2017-07-30T09:30:46Z</time>
      </trkpt>
      <trkpt lat="42.6168" lon="-0.198">
        <ele>1375</ele>
        <time>2017-07-30T09:30:47Z</time>
      </trkpt>
      <trkpt lat="42.61678" lon="-0.19802">
        <ele>1375.3</ele>
        <time>2017-07-30T09:30:48Z</time>
      </trkpt>
      <trkpt lat="42.61675" lon="-0.19805">
        <ele>1375.5</ele>
        <time>2017-07-30T09:30:49Z</time>
      </trkpt>
      <trkpt lat="42.61672" lon="-0.19807">
        <ele>1375.9</ele>
        <time>2017-07-30T09:30:50Z</time>
      </trkpt>
      <trkpt lat="42.61669" lon="-0.19809">
        <ele>1376.1</ele>
        <time>2017-07-30T09:30:51Z</time>
      </trkpt>
      <trkpt lat="42.61667" lon="-0.19811">
        <ele>1376.4</ele>
        <time>2017-07-30T09:30:52Z</time>
      </trkpt>
      <trkpt lat="42.61664" lon="-0.19813">
        <ele>1376.7</ele>
        <time>2017-07-30T09:30:53Z</time>
      </trkpt>
      <trkpt lat="42.61662" lon="-0.19816">
        <ele>1377</ele>
        <time>2017-07-30T09:30:54Z</time>
      </trkpt>
      <trkpt lat="42.6166" lon="-0.19818">
        <ele>1377.3</ele>
        <time>2017-07-30T09:30:55Z</time>
      </trkpt>
      <trkpt lat="42.61657" lon="-0.1982">
        <ele>1377.6</ele>
        <time>2017-07-30T09:30:56Z</time>
      </trkpt>
      <trkpt lat="42.61655" lon="-0.19822">
        <ele>1377.9</ele>
        <time>2017-07-30T09:30:57Z</time>
      </trkpt>
      <trkpt lat="42.61651" lon="-0.19827">
        <ele>1378.3</ele>
        <time>2017-07-30T09:30:59Z</time>
      </trkpt>
      <trkpt lat="42.61648" lon="-0.19832">
        <ele>1378.8</ele>
        <time>2017-07-30T09:31:01Z</time>
      </trkpt>
      <trkpt lat="42.61644" lon="-0.19837">
        <ele>1379.4</ele>
        <time>2017-07-30T09:31:03Z</time>
      </trkpt>
      <trkpt lat="42.61642" lon="-0.1984">
        <ele>1379.7</ele>
        <time>2017-07-30T09:31:04Z</time>
      </trkpt>
      <trkpt lat="42.61641" lon="-0.19843">
        <ele>1380.1</ele>
        <time>2017-07-30T09:31:05Z</time>
      </trkpt>
      <trkpt lat="42.61639" lon="-0.19846">
        <ele>1380.4</ele>
        <time>2017-07-30T09:31:06Z</time>
      </trkpt>
      <trkpt lat="42.61637" lon="-0.19849">
        <ele>1380.5</ele>
        <time>2017-07-30T09:31:07Z</time>
      </trkpt>
      <trkpt lat="42.61633" lon="-0.19854">
        <ele>1380.9</ele>
        <time>2017-07-30T09:31:09Z</time>
      </trkpt>
      <trkpt lat="42.61629" lon="-0.19858">
        <ele>1381.2</ele>
        <time>2017-07-30T09:31:11Z</time>
      </trkpt>
      <trkpt lat="42.61624" lon="-0.19861">
        <ele>1381.8</ele>
        <time>2017-07-30T09:31:13Z</time>
      </trkpt>
      <trkpt lat="42.6162" lon="-0.19865">
        <ele>1382.4</ele>
        <time>2017-07-30T09:31:15Z</time>
      </trkpt>
      <trkpt lat="42.61616" lon="-0.19869">
        <ele>1382.8</ele>
        <time>2017-07-30T09:31:17Z</time>
      </trkpt>
      <trkpt lat="42.61611" lon="-0.19873">
        <ele>1383.2</ele>
        <time>2017-07-30T09:31:19Z</time>
      </trkpt>
      <trkpt lat="42.61607" lon="-0.19877">
        <ele>1383.6</ele>
        <time>2017-07-30T09:31:21Z</time>
      </trkpt>
      <trkpt lat="42.61603" lon="-0.19881">
        <ele>1384.2</ele>
        <time>2017-07-30T09:31:23Z</time>
      </trkpt>
      <trkpt lat="42.61599" lon="-0.19885">
        <ele>1384.7</ele>
        <time>2017-07-30T09:31:25Z</time>
      </trkpt>
      <trkpt lat="42.61596" lon="-0.1989">
        <ele>1385.2</ele>
        <time>2017-07-30T09:31:27Z</time>
      </trkpt>
      <trkpt lat="42.61593" lon="-0.19895">
        <ele>1385.5</ele>
        <time>2017-07-30T09:31:29Z</time>
      </trkpt>
      <trkpt lat="42.6159" lon="-0.19901">
        <ele>1385.8</ele>
        <time>2017-07-30T09:31:31Z</time>
      </trkpt>
      <trkpt lat="42.61587" lon="-0.19906">
        <ele>1386.3</ele>
        <time>2017-07-30T09:31:33Z</time>
      </trkpt>
      <trkpt lat="42.61583" lon="-0.19911">
        <ele>1386.8</ele>
        <time>2017-07-30T09:31:35Z</time>
      </trkpt>
      <trkpt lat="42.61579" lon="-0.19916">
        <ele>1387.2</ele>
        <time>2017-07-30T09:31:37Z</time>
      </trkpt>
      <trkpt lat="42.61575" lon="-0.19919">
        <ele>1387.6</ele>
        <time>2017-07-30T09:31:39Z</time>
      </trkpt>
      <trkpt lat="42.61571" lon="-0.19923">
        <ele>1388</ele>
        <time>2017-07-30T09:31:41Z</time>
      </trkpt>
      <trkpt lat="42.61566" lon="-0.19925">
        <ele>1388.4</ele>
        <time>2017-07-30T09:31:43Z</time>
      </trkpt>
      <trkpt lat="42.61562" lon="-0.19928">
        <ele>1388.9</ele>
        <time>2017-07-30T09:31:45Z</time>
      </trkpt>
      <trkpt lat="42.61557" lon="-0.19932">
        <ele>1389.3</ele>
        <time>2017-07-30T09:31:47Z</time>
      </trkpt>
      <trkpt lat="42.61553" lon="-0.19935">
        <ele>1389.8</ele>
        <time>2017-07-30T09:31:49Z</time>
      </trkpt>
      <trkpt lat="42.61549" lon="-0.19939">
        <ele>1390.2</ele>
        <time>2017-07-30T09:31:51Z</time>
      </trkpt>
      <trkpt lat="42.61546" lon="-0.19944">
        <ele>1390.6</ele>
        <time>2017-07-30T09:31:53Z</time>
      </trkpt>
      <trkpt lat="42.61543" lon="-0.1995">
        <ele>1391.2</ele>
        <time>2017-07-30T09:31:55Z</time>
      </trkpt>
      <trkpt lat="42.6154" lon="-0.19956">
        <ele>1391.8</ele>
        <time>2017-07-30T09:31:57Z</time>
      </trkpt>
      <trkpt lat="42.61538" lon="-0.19961">
        <ele>1392.3</ele>
        <time>2017-07-30T09:31:59Z</time>
      </trkpt>
      <trkpt lat="42.61535" lon="-0.19967">
        <ele>1392.7</ele>
        <time>2017-07-30T09:32:01Z</time>
      </trkpt>
      <trkpt lat="42.61531" lon="-0.19972">
        <ele>1393.1</ele>
        <time>2017-07-30T09:32:03Z</time>
      </trkpt>
      <trkpt lat="42.61528" lon="-0.19977">
        <ele>1393.6</ele>
        <time>2017-07-30T09:32:05Z</time>
      </trkpt>
      <trkpt lat="42.61524" lon="-0.19981">
        <ele>1394.1</ele>
        <time>2017-07-30T09:32:07Z</time>
      </trkpt>
      <trkpt lat="42.6152" lon="-0.19985">
        <ele>1394.7</ele>
        <time>2017-07-30T09:32:09Z</time>
      </trkpt>
      <trkpt lat="42.61516" lon="-0.19987">
        <ele>1395.1</ele>
        <time>2017-07-30T09:32:11Z</time>
      </trkpt>
      <trkpt lat="42.61511" lon="-0.1999">
        <ele>1395.5</ele>
        <time>2017-07-30T09:32:13Z</time>
      </trkpt>
      <trkpt lat="42.61507" lon="-0.19992">
        <ele>1395.8</ele>
        <time>2017-07-30T09:32:15Z</time>
      </trkpt>
      <trkpt lat="42.61502" lon="-0.19994">
        <ele>1396.2</ele>
        <time>2017-07-30T09:32:17Z</time>
      </trkpt>
      <trkpt lat="42.61497" lon="-0.19995">
        <ele>1396.7</ele>
        <time>2017-07-30T09:32:19Z</time>
      </trkpt>
      <trkpt lat="42.61492" lon="-0.19996">
        <ele>1397.2</ele>
        <time>2017-07-30T09:32:21Z</time>
      </trkpt>
      <trkpt lat="42.61488" lon="-0.19997">
        <ele>1397.6</ele>
        <time>2017-07-30T09:32:23Z</time>
      </trkpt>
      <trkpt lat="42.61483" lon="-0.19999">
        <ele>1397.9</ele>
        <time>2017-07-30T09:32:25Z</time>
      </trkpt>
      <trkpt lat="42.61478" lon="-0.20001">
        <ele>1398.2</ele>
        <time>2017-07-30T09:32:27Z</time>
      </trkpt>
      <trkpt lat="42.61474" lon="-0.20004">
        <ele>1398.7</ele>
        <time>2017-07-30T09:32:29Z</time>
      </trkpt>
      <trkpt lat="42.6147" lon="-0.20006">
        <ele>1399.3</ele>
        <time>2017-07-30T09:32:31Z</time>
      </trkpt>
      <trkpt lat="42.61465" lon="-0.20009">
        <ele>1399.9</ele>
        <time>2017-07-30T09:32:33Z</time>
      </trkpt>
      <trkpt lat="42.6146" lon="-0.20012">
        <ele>1400.3</ele>
        <time>2017-07-30T09:32:35Z</time>
      </trkpt>
      <trkpt lat="42.61456" lon="-0.20015">
        <ele>1400.7</ele>
        <time>2017-07-30T09:32:37Z</time>
      </trkpt>
      <trkpt lat="42.61451" lon="-0.20019">
        <ele>1401.3</ele>
        <time>2017-07-30T09:32:39Z</time>
      </trkpt>
      <trkpt lat="42.61447" lon="-0.20023">
        <ele>1401.8</ele>
        <time>2017-07-30T09:32:41Z</time>
      </trkpt>
      <trkpt lat="42.61443" lon="-0.20027">
        <ele>1402.3</ele>
        <time>2017-07-30T09:32:43Z</time>
      </trkpt>
      <trkpt lat="42.61439" lon="-0.2003">
        <ele>1402.6</ele>
        <time>2017-07-30T09:32:45Z</time>
      </trkpt>
      <trkpt lat="42.61434" lon="-0.20034">
        <ele>1402.9</ele>
        <time>2017-07-30T09:32:47Z</time>
      </trkpt>
      <trkpt lat="42.6143" lon="-0.20038">
        <ele>1403.3</ele>
        <time>2017-07-30T09:32:49Z</time>
      </trkpt>
      <trkpt lat="42.61426" lon="-0.20042">
        <ele>1403.8</ele>
        <time>2017-07-30T09:32:51Z</time>
      </trkpt>
      <trkpt lat="42.61422" lon="-0.20046">
        <ele>1404.3</ele>
        <time>2017-07-30T09:32:53Z</time>
      </trkpt>
      <trkpt lat="42.61419" lon="-0.20051">
        <ele>1404.7</ele>
        <time>2017-07-30T09:32:55Z</time>
      </trkpt>
      <trkpt lat="42.61415" lon="-0.20056">
        <ele>1405.1</ele>
        <time>2017-07-30T09:32:57Z</time>
      </trkpt>
      <trkpt lat="42.61412" lon="-0.20061">
        <ele>1405.4</ele>
        <time>2017-07-30T09:32:59Z</time>
      </trkpt>
      <trkpt lat="42.61409" lon="-0.20066">
        <ele>1405.6</ele>
        <time>2017-07-30T09:33:01Z</time>
      </trkpt>
      <trkpt lat="42.61407" lon="-0.20071">
        <ele>1406.1</ele>
        <time>2017-07-30T09:33:03Z</time>
      </trkpt>
      <trkpt lat="42.61404" lon="-0.20077">
        <ele>1406.7</ele>
        <time>2017-07-30T09:33:05Z</time>
      </trkpt>
      <trkpt lat="42.61401" lon="-0.20083">
        <ele>1407.2</ele>
        <time>2017-07-30T09:33:07Z</time>
      </trkpt>
      <trkpt lat="42.61398" lon="-0.20088">
        <ele>1407.7</ele>
        <time>2017-07-30T09:33:09Z</time>
      </trkpt>
      <trkpt lat="42.61396" lon="-0.20094">
        <ele>1408.1</ele>
        <time>2017-07-30T09:33:11Z</time>
      </trkpt>
      <trkpt lat="42.61393" lon="-0.201">
        <ele>1408.7</ele>
        <time>2017-07-30T09:33:13Z</time>
      </trkpt>
      <trkpt lat="42.6139" lon="-0.20105">
        <ele>1409.2</ele>
        <time>2017-07-30T09:33:15Z</time>
      </trkpt>
      <trkpt lat="42.61386" lon="-0.2011">
        <ele>1409.6</ele>
        <time>2017-07-30T09:33:17Z</time>
      </trkpt>
      <trkpt lat="42.61381" lon="-0.20113">
        <ele>1410</ele>
        <time>2017-07-30T09:33:19Z</time>
      </trkpt>
      <trkpt lat="42.61376" lon="-0.20115">
        <ele>1410.3</ele>
        <time>2017-07-30T09:33:21Z</time>
      </trkpt>
      <trkpt lat="42.61371" lon="-0.20117">
        <ele>1410.7</ele>
        <time>2017-07-30T09:33:23Z</time>
      </trkpt>
      <trkpt lat="42.61366" lon="-0.20118">
        <ele>1411.2</ele>
        <time>2017-07-30T09:33:25Z</time>
      </trkpt>
      <trkpt lat="42.61361" lon="-0.20119">
        <ele>1411.7</ele>
        <time>2017-07-30T09:33:27Z</time>
      </trkpt>
      <trkpt lat="42.61356" lon="-0.2012">
        <ele>1412.1</ele>
        <time>2017-07-30T09:33:29Z</time>
      </trkpt>
      <trkpt lat="42.6135" lon="-0.20121">
        <ele>1412.4</ele>
        <time>2017-07-30T09:33:31Z</time>
      </trkpt>
      <trkpt lat="42.61345" lon="-0.20123">
        <ele>1412.7</ele>
        <time>2017-07-30T09:33:33Z</time>
      </trkpt>
      <trkpt lat="42.61343" lon="-0.20123">
        <ele>1412.9</ele>
        <time>2017-07-30T09:33:34Z</time>
      </trkpt>
      <trkpt lat="42.61337" lon="-0.20125">
        <ele>1413.4</ele>
        <time>2017-07-30T09:33:36Z</time>
      </trkpt>
      <trkpt lat="42.61335" lon="-0.20126">
        <ele>1413.7</ele>
        <time>2017-07-30T09:33:37Z</time>
      </trkpt>
      <trkpt lat="42.61332" lon="-0.20127">
        <ele>1414</ele>
        <time>2017-07-30T09:33:38Z</time>
      </trkpt>
      <trkpt lat="42.61329" lon="-0.20128">
        <ele>1414.3</ele>
        <time>2017-07-30T09:33:39Z</time>
      </trkpt>
      <trkpt lat="42.61327" lon="-0.20129">
        <ele>1414.5</ele>
        <time>2017-07-30T09:33:40Z</time>
      </trkpt>
      <trkpt lat="42.61324" lon="-0.20131">
        <ele>1414.7</ele>
        <time>2017-07-30T09:33:41Z</time>
      </trkpt>
      <trkpt lat="42.61321" lon="-0.20132">
        <ele>1414.9</ele>
        <time>2017-07-30T09:33:42Z</time>
      </trkpt>
      <trkpt lat="42.61319" lon="-0.20133">
        <ele>1415.1</ele>
        <time>2017-07-30T09:33:43Z</time>
      </trkpt>
      <trkpt lat="42.61316" lon="-0.20135">
        <ele>1415.4</ele>
        <time>2017-07-30T09:33:44Z</time>
      </trkpt>
      <trkpt lat="42.61314" lon="-0.20137">
        <ele>1415.6</ele>
        <time>2017-07-30T09:33:45Z</time>
      </trkpt>
      <trkpt lat="42.61311" lon="-0.20139">
        <ele>1415.9</ele>
        <time>2017-07-30T09:33:46Z</time>
      </trkpt>
      <trkpt lat="42.61309" lon="-0.20142">
        <ele>1416.1</ele>
        <time>2017-07-30T09:33:47Z</time>
      </trkpt>
      <trkpt lat="42.61307" lon="-0.20145">
        <ele>1416.3</ele>
        <time>2017-07-30T09:33:48Z</time>
      </trkpt>
      <trkpt lat="42.61304" lon="-0.20147">
        <ele>1416.5</ele>
        <time>2017-07-30T09:33:49Z</time>
      </trkpt>
      <trkpt lat="42.61301" lon="-0.20149">
        <ele>1416.7</ele>
        <time>2017-07-30T09:33:50Z</time>
      </trkpt>
      <trkpt lat="42.61299" lon="-0.2015">
        <ele>1416.8</ele>
        <time>2017-07-30T09:33:51Z</time>
      </trkpt>
      <trkpt lat="42.61296" lon="-0.20151">
        <ele>1416.9</ele>
        <time>2017-07-30T09:33:52Z</time>
      </trkpt>
      <trkpt lat="42.61291" lon="-0.20153">
        <ele>1416.1</ele>
        <time>2017-07-30T09:33:54Z</time>
      </trkpt>
      <trkpt lat="42.61288" lon="-0.20157">
        <ele>1415.8</ele>
        <time>2017-07-30T09:33:56Z</time>
      </trkpt>
      <trkpt lat="42.61281" lon="-0.20161">
        <ele>1415.7</ele>
        <time>2017-07-30T09:33:58Z</time>
      </trkpt>
      <trkpt lat="42.61276" lon="-0.20161">
        <ele>1415.7</ele>
        <time>2017-07-30T09:35:03Z</time>
      </trkpt>
      <trkpt lat="42.6127" lon="-0.20161">
        <ele>1415.7</ele>
        <time>2017-07-30T09:35:51Z</time>
      </trkpt>
      <trkpt lat="42.61265" lon="-0.20162">
        <ele>1416.2</ele>
        <time>2017-07-30T09:35:52Z</time>
      </trkpt>
      <trkpt lat="42.6126" lon="-0.20164">
        <ele>1416.5</ele>
        <time>2017-07-30T09:35:53Z</time>
      </trkpt>
      <trkpt lat="42.61253" lon="-0.20166">
        <ele>1417.1</ele>
        <time>2017-07-30T09:35:54Z</time>
      </trkpt>
      <trkpt lat="42.61247" lon="-0.20167">
        <ele>1417.4</ele>
        <time>2017-07-30T09:35:55Z</time>
      </trkpt>
      <trkpt lat="42.6124" lon="-0.20165">
        <ele>1417</ele>
        <time>2017-07-30T09:35:56Z</time>
      </trkpt>
      <trkpt lat="42.61235" lon="-0.20167">
        <ele>1417</ele>
        <time>2017-07-30T09:35:57Z</time>
      </trkpt>
      <trkpt lat="42.61231" lon="-0.20171">
        <ele>1417.7</ele>
        <time>2017-07-30T09:35:58Z</time>
      </trkpt>
      <trkpt lat="42.61226" lon="-0.20174">
        <ele>1418.2</ele>
        <time>2017-07-30T09:35:59Z</time>
      </trkpt>
      <trkpt lat="42.6122" lon="-0.20179">
        <ele>1418.9</ele>
        <time>2017-07-30T09:36:00Z</time>
      </trkpt>
      <trkpt lat="42.61213" lon="-0.20183">
        <ele>1419.9</ele>
        <time>2017-07-30T09:36:01Z</time>
      </trkpt>
      <trkpt lat="42.61208" lon="-0.20186">
        <ele>1421.1</ele>
        <time>2017-07-30T09:36:02Z</time>
      </trkpt>
      <trkpt lat="42.61203" lon="-0.20189">
        <ele>1422.2</ele>
        <time>2017-07-30T09:36:03Z</time>
      </trkpt>
      <trkpt lat="42.612" lon="-0.20192">
        <ele>1423.1</ele>
        <time>2017-07-30T09:36:04Z</time>
      </trkpt>
      <trkpt lat="42.61197" lon="-0.20194">
        <ele>1423.8</ele>
        <time>2017-07-30T09:36:05Z</time>
      </trkpt>
      <trkpt lat="42.61193" lon="-0.20196">
        <ele>1424.7</ele>
        <time>2017-07-30T09:36:07Z</time>
      </trkpt>
      <trkpt lat="42.61189" lon="-0.20199">
        <ele>1425.6</ele>
        <time>2017-07-30T09:36:09Z</time>
      </trkpt>
      <trkpt lat="42.61186" lon="-0.202">
        <ele>1426.4</ele>
        <time>2017-07-30T09:36:11Z</time>
      </trkpt>
      <trkpt lat="42.61183" lon="-0.20202">
        <ele>1427.2</ele>
        <time>2017-07-30T09:36:13Z</time>
      </trkpt>
      <trkpt lat="42.6118" lon="-0.20203">
        <ele>1428</ele>
        <time>2017-07-30T09:36:15Z</time>
      </trkpt>
      <trkpt lat="42.61177" lon="-0.20205">
        <ele>1428.8</ele>
        <time>2017-07-30T09:36:17Z</time>
      </trkpt>
      <trkpt lat="42.61173" lon="-0.20207">
        <ele>1429.9</ele>
        <time>2017-07-30T09:36:19Z</time>
      </trkpt>
      <trkpt lat="42.6117" lon="-0.20208">
        <ele>1431</ele>
        <time>2017-07-30T09:36:21Z</time>
      </trkpt>
      <trkpt lat="42.61168" lon="-0.2021">
        <ele>1432</ele>
        <time>2017-07-30T09:36:23Z</time>
      </trkpt>
      <trkpt lat="42.61165" lon="-0.20211">
        <ele>1432.7</ele>
        <time>2017-07-30T09:36:25Z</time>
      </trkpt>
      <trkpt lat="42.61162" lon="-0.20212">
        <ele>1433.5</ele>
        <time>2017-07-30T09:36:27Z</time>
      </trkpt>
      <trkpt lat="42.61159" lon="-0.20213">
        <ele>1434.6</ele>
        <time>2017-07-30T09:36:30Z</time>
      </trkpt>
      <trkpt lat="42.61155" lon="-0.20215">
        <ele>1435.7</ele>
        <time>2017-07-30T09:36:33Z</time>
      </trkpt>
      <trkpt lat="42.61151" lon="-0.20217">
        <ele>1436.9</ele>
        <time>2017-07-30T09:36:36Z</time>
      </trkpt>
      <trkpt lat="42.61148" lon="-0.20219">
        <ele>1438.4</ele>
        <time>2017-07-30T09:36:39Z</time>
      </trkpt>
      <trkpt lat="42.61144" lon="-0.20222">
        <ele>1439.8</ele>
        <time>2017-07-30T09:36:42Z</time>
      </trkpt>
      <trkpt lat="42.61142" lon="-0.20225">
        <ele>1440.9</ele>
        <time>2017-07-30T09:36:45Z</time>
      </trkpt>
      <trkpt lat="42.61139" lon="-0.20228">
        <ele>1442</ele>
        <time>2017-07-30T09:36:48Z</time>
      </trkpt>
      <trkpt lat="42.61136" lon="-0.20232">
        <ele>1443.1</ele>
        <time>2017-07-30T09:36:51Z</time>
      </trkpt>
      <trkpt lat="42.61133" lon="-0.20235">
        <ele>1444.2</ele>
        <time>2017-07-30T09:36:54Z</time>
      </trkpt>
      <trkpt lat="42.61129" lon="-0.20236">
        <ele>1445.8</ele>
        <time>2017-07-30T09:36:57Z</time>
      </trkpt>
      <trkpt lat="42.61125" lon="-0.20237">
        <ele>1447.5</ele>
        <time>2017-07-30T09:37:00Z</time>
      </trkpt>
      <trkpt lat="42.61122" lon="-0.20238">
        <ele>1448.6</ele>
        <time>2017-07-30T09:37:03Z</time>
      </trkpt>
      <trkpt lat="42.61118" lon="-0.20238">
        <ele>1449.6</ele>
        <time>2017-07-30T09:37:06Z</time>
      </trkpt>
      <trkpt lat="42.61115" lon="-0.20238">
        <ele>1450.6</ele>
        <time>2017-07-30T09:37:09Z</time>
      </trkpt>
      <trkpt lat="42.61112" lon="-0.20238">
        <ele>1451.7</ele>
        <time>2017-07-30T09:37:12Z</time>
      </trkpt>
      <trkpt lat="42.61109" lon="-0.20237">
        <ele>1452.9</ele>
        <time>2017-07-30T09:37:15Z</time>
      </trkpt>
      <trkpt lat="42.61106" lon="-0.20236">
        <ele>1454.1</ele>
        <time>2017-07-30T09:37:18Z</time>
      </trkpt>
      <trkpt lat="42.61103" lon="-0.20235">
        <ele>1455.4</ele>
        <time>2017-07-30T09:37:21Z</time>
      </trkpt>
      <trkpt lat="42.611" lon="-0.20234">
        <ele>1456.6</ele>
        <time>2017-07-30T09:37:24Z</time>
      </trkpt>
      <trkpt lat="42.61097" lon="-0.20233">
        <ele>1458.1</ele>
        <time>2017-07-30T09:37:27Z</time>
      </trkpt>
      <trkpt lat="42.61093" lon="-0.20233">
        <ele>1459.9</ele>
        <time>2017-07-30T09:37:30Z</time>
      </trkpt>
      <trkpt lat="42.6109" lon="-0.20232">
        <ele>1461.8</ele>
        <time>2017-07-30T09:37:33Z</time>
      </trkpt>
      <trkpt lat="42.61087" lon="-0.20231">
        <ele>1463.7</ele>
        <time>2017-07-30T09:37:36Z</time>
      </trkpt>
      <trkpt lat="42.61084" lon="-0.20231">
        <ele>1465.6</ele>
        <time>2017-07-30T09:37:39Z</time>
      </trkpt>
      <trkpt lat="42.61081" lon="-0.20231">
        <ele>1467.4</ele>
        <time>2017-07-30T09:37:42Z</time>
      </trkpt>
      <trkpt lat="42.61078" lon="-0.20232">
        <ele>1468.6</ele>
        <time>2017-07-30T09:37:45Z</time>
      </trkpt>
      <trkpt lat="42.61075" lon="-0.20234">
        <ele>1469.4</ele>
        <time>2017-07-30T09:37:48Z</time>
      </trkpt>
      <trkpt lat="42.61072" lon="-0.20235">
        <ele>1470.2</ele>
        <time>2017-07-30T09:37:51Z</time>
      </trkpt>
      <trkpt lat="42.61069" lon="-0.20236">
        <ele>1471</ele>
        <time>2017-07-30T09:37:54Z</time>
      </trkpt>
      <trkpt lat="42.61065" lon="-0.20237">
        <ele>1471.8</ele>
        <time>2017-07-30T09:37:57Z</time>
      </trkpt>
      <trkpt lat="42.61062" lon="-0.20238">
        <ele>1472.8</ele>
        <time>2017-07-30T09:38:00Z</time>
      </trkpt>
      <trkpt lat="42.61059" lon="-0.20239">
        <ele>1473.7</ele>
        <time>2017-07-30T09:38:03Z</time>
      </trkpt>
      <trkpt lat="42.61055" lon="-0.2024">
        <ele>1474.7</ele>
        <time>2017-07-30T09:38:06Z</time>
      </trkpt>
      <trkpt lat="42.61052" lon="-0.20242">
        <ele>1475.5</ele>
        <time>2017-07-30T09:38:09Z</time>
      </trkpt>
      <trkpt lat="42.61049" lon="-0.20244">
        <ele>1476.3</ele>
        <time>2017-07-30T09:38:12Z</time>
      </trkpt>
      <trkpt lat="42.61045" lon="-0.20244">
        <ele>1477.6</ele>
        <time>2017-07-30T09:38:15Z</time>
      </trkpt>
      <trkpt lat="42.61041" lon="-0.20244">
        <ele>1479.1</ele>
        <time>2017-07-30T09:38:18Z</time>
      </trkpt>
      <trkpt lat="42.61038" lon="-0.20244">
        <ele>1480.3</ele>
        <time>2017-07-30T09:38:20Z</time>
      </trkpt>
      <trkpt lat="42.61035" lon="-0.20245">
        <ele>1481.6</ele>
        <time>2017-07-30T09:38:22Z</time>
      </trkpt>
      <trkpt lat="42.61032" lon="-0.20246">
        <ele>1482.8</ele>
        <time>2017-07-30T09:38:24Z</time>
      </trkpt>
      <trkpt lat="42.61029" lon="-0.20247">
        <ele>1484.3</ele>
        <time>2017-07-30T09:38:26Z</time>
      </trkpt>
      <trkpt lat="42.61026" lon="-0.20248">
        <ele>1486.2</ele>
        <time>2017-07-30T09:38:28Z</time>
      </trkpt>
      <trkpt lat="42.61023" lon="-0.20249">
        <ele>1487.3</ele>
        <time>2017-07-30T09:38:30Z</time>
      </trkpt>
      <trkpt lat="42.6102" lon="-0.2025">
        <ele>1488.2</ele>
        <time>2017-07-30T09:38:32Z</time>
      </trkpt>
      <trkpt lat="42.61017" lon="-0.20251">
        <ele>1489.1</ele>
        <time>2017-07-30T09:38:34Z</time>
      </trkpt>
      <trkpt lat="42.61014" lon="-0.20252">
        <ele>1490</ele>
        <time>2017-07-30T09:38:36Z</time>
      </trkpt>
      <trkpt lat="42.61012" lon="-0.20253">
        <ele>1490.8</ele>
        <time>2017-07-30T09:38:38Z</time>
      </trkpt>
      <trkpt lat="42.61008" lon="-0.20254">
        <ele>1491.8</ele>
        <time>2017-07-30T09:38:41Z</time>
      </trkpt>
      <trkpt lat="42.61005" lon="-0.20256">
        <ele>1493</ele>
        <time>2017-07-30T09:38:44Z</time>
      </trkpt>
      <trkpt lat="42.61003" lon="-0.2026">
        <ele>1494.2</ele>
        <time>2017-07-30T09:38:47Z</time>
      </trkpt>
      <trkpt lat="42.61003" lon="-0.20265">
        <ele>1495.6</ele>
        <time>2017-07-30T09:38:50Z</time>
      </trkpt>
      <trkpt lat="42.61004" lon="-0.20269">
        <ele>1496.4</ele>
        <time>2017-07-30T09:38:52Z</time>
      </trkpt>
      <trkpt lat="42.61006" lon="-0.20272">
        <ele>1495.9</ele>
        <time>2017-07-30T09:38:54Z</time>
      </trkpt>
      <trkpt lat="42.61008" lon="-0.20275">
        <ele>1495.5</ele>
        <time>2017-07-30T09:38:56Z</time>
      </trkpt>
      <trkpt lat="42.61011" lon="-0.20278">
        <ele>1495.4</ele>
        <time>2017-07-30T09:38:58Z</time>
      </trkpt>
      <trkpt lat="42.61015" lon="-0.2028">
        <ele>1495.1</ele>
        <time>2017-07-30T09:39:00Z</time>
      </trkpt>
      <trkpt lat="42.61018" lon="-0.20283">
        <ele>1494.7</ele>
        <time>2017-07-30T09:39:02Z</time>
      </trkpt>
      <trkpt lat="42.61021" lon="-0.20286">
        <ele>1494.5</ele>
        <time>2017-07-30T09:39:04Z</time>
      </trkpt>
      <trkpt lat="42.61024" lon="-0.20288">
        <ele>1494.2</ele>
        <time>2017-07-30T09:39:06Z</time>
      </trkpt>
      <trkpt lat="42.61027" lon="-0.2029">
        <ele>1494.1</ele>
        <time>2017-07-30T09:39:08Z</time>
      </trkpt>
      <trkpt lat="42.6103" lon="-0.20291">
        <ele>1494.2</ele>
        <time>2017-07-30T09:39:10Z</time>
      </trkpt>
      <trkpt lat="42.61033" lon="-0.20293">
        <ele>1494.3</ele>
        <time>2017-07-30T09:39:12Z</time>
      </trkpt>
      <trkpt lat="42.61036" lon="-0.20295">
        <ele>1494.5</ele>
        <time>2017-07-30T09:39:14Z</time>
      </trkpt>
      <trkpt lat="42.61039" lon="-0.20297">
        <ele>1494.8</ele>
        <time>2017-07-30T09:39:16Z</time>
      </trkpt>
      <trkpt lat="42.61042" lon="-0.20299">
        <ele>1495.2</ele>
        <time>2017-07-30T09:39:18Z</time>
      </trkpt>
      <trkpt lat="42.61044" lon="-0.20301">
        <ele>1495.7</ele>
        <time>2017-07-30T09:39:20Z</time>
      </trkpt>
      <trkpt lat="42.61047" lon="-0.20304">
        <ele>1496.3</ele>
        <time>2017-07-30T09:39:22Z</time>
      </trkpt>
      <trkpt lat="42.6105" lon="-0.20306">
        <ele>1497</ele>
        <time>2017-07-30T09:39:24Z</time>
      </trkpt>
      <trkpt lat="42.61054" lon="-0.20308">
        <ele>1498</ele>
        <time>2017-07-30T09:39:26Z</time>
      </trkpt>
      <trkpt lat="42.61057" lon="-0.2031">
        <ele>1499.2</ele>
        <time>2017-07-30T09:39:28Z</time>
      </trkpt>
      <trkpt lat="42.61061" lon="-0.20312">
        <ele>1500.8</ele>
        <time>2017-07-30T09:39:30Z</time>
      </trkpt>
      <trkpt lat="42.61064" lon="-0.20315">
        <ele>1502.2</ele>
        <time>2017-07-30T09:39:32Z</time>
      </trkpt>
      <trkpt lat="42.61067" lon="-0.20317">
        <ele>1503.5</ele>
        <time>2017-07-30T09:39:34Z</time>
      </trkpt>
      <trkpt lat="42.6107" lon="-0.20319">
        <ele>1504.8</ele>
        <time>2017-07-30T09:39:36Z</time>
      </trkpt>
      <trkpt lat="42.61074" lon="-0.20322">
        <ele>1506.1</ele>
        <time>2017-07-30T09:39:38Z</time>
      </trkpt>
      <trkpt lat="42.61077" lon="-0.20324">
        <ele>1506.6</ele>
        <time>2017-07-30T09:39:40Z</time>
      </trkpt>
      <trkpt lat="42.61081" lon="-0.20324">
        <ele>1507.2</ele>
        <time>2017-07-30T09:39:42Z</time>
      </trkpt>
      <trkpt lat="42.61085" lon="-0.20325">
        <ele>1508.2</ele>
        <time>2017-07-30T09:39:44Z</time>
      </trkpt>
      <trkpt lat="42.6109" lon="-0.20326">
        <ele>1509.3</ele>
        <time>2017-07-30T09:39:46Z</time>
      </trkpt>
      <trkpt lat="42.61093" lon="-0.20328">
        <ele>1509.9</ele>
        <time>2017-07-30T09:39:48Z</time>
      </trkpt>
      <trkpt lat="42.61097" lon="-0.20329">
        <ele>1510.5</ele>
        <time>2017-07-30T09:39:50Z</time>
      </trkpt>
      <trkpt lat="42.61101" lon="-0.20331">
        <ele>1510.8</ele>
        <time>2017-07-30T09:39:52Z</time>
      </trkpt>
      <trkpt lat="42.61104" lon="-0.20332">
        <ele>1510.8</ele>
        <time>2017-07-30T09:39:54Z</time>
      </trkpt>
      <trkpt lat="42.61108" lon="-0.20333">
        <ele>1510.9</ele>
        <time>2017-07-30T09:39:56Z</time>
      </trkpt>
      <trkpt lat="42.61112" lon="-0.20334">
        <ele>1511.5</ele>
        <time>2017-07-30T09:39:58Z</time>
      </trkpt>
      <trkpt lat="42.61116" lon="-0.20335">
        <ele>1512</ele>
        <time>2017-07-30T09:40:00Z</time>
      </trkpt>
      <trkpt lat="42.6112" lon="-0.20336">
        <ele>1512</ele>
        <time>2017-07-30T09:40:02Z</time>
      </trkpt>
      <trkpt lat="42.61125" lon="-0.20338">
        <ele>1511.3</ele>
        <time>2017-07-30T09:40:04Z</time>
      </trkpt>
      <trkpt lat="42.61129" lon="-0.2034">
        <ele>1509.7</ele>
        <time>2017-07-30T09:40:06Z</time>
      </trkpt>
      <trkpt lat="42.61134" lon="-0.20341">
        <ele>1508.9</ele>
        <time>2017-07-30T09:40:08Z</time>
      </trkpt>
      <trkpt lat="42.61138" lon="-0.20342">
        <ele>1508.9</ele>
        <time>2017-07-30T09:40:10Z</time>
      </trkpt>
      <trkpt lat="42.61143" lon="-0.20344">
        <ele>1508.6</ele>
        <time>2017-07-30T09:40:12Z</time>
      </trkpt>
      <trkpt lat="42.61147" lon="-0.20346">
        <ele>1508.2</ele>
        <time>2017-07-30T09:40:14Z</time>
      </trkpt>
      <trkpt lat="42.6115" lon="-0.20347">
        <ele>1508.2</ele>
        <time>2017-07-30T09:40:16Z</time>
      </trkpt>
      <trkpt lat="42.61153" lon="-0.20349">
        <ele>1508.5</ele>
        <time>2017-07-30T09:40:18Z</time>
      </trkpt>
      <trkpt lat="42.61156" lon="-0.20352">
        <ele>1509.5</ele>
        <time>2017-07-30T09:40:20Z</time>
      </trkpt>
      <trkpt lat="42.61158" lon="-0.20355">
        <ele>1510.9</ele>
        <time>2017-07-30T09:40:22Z</time>
      </trkpt>
      <trkpt lat="42.6116" lon="-0.20358">
        <ele>1511.1</ele>
        <time>2017-07-30T09:40:24Z</time>
      </trkpt>
      <trkpt lat="42.61162" lon="-0.20361">
        <ele>1510.7</ele>
        <time>2017-07-30T09:40:26Z</time>
      </trkpt>
      <trkpt lat="42.61164" lon="-0.20366">
        <ele>1510.9</ele>
        <time>2017-07-30T09:40:29Z</time>
      </trkpt>
      <trkpt lat="42.61166" lon="-0.20371">
        <ele>1511.6</ele>
        <time>2017-07-30T09:40:32Z</time>
      </trkpt>
      <trkpt lat="42.61168" lon="-0.20374">
        <ele>1512.2</ele>
        <time>2017-07-30T09:40:34Z</time>
      </trkpt>
      <trkpt lat="42.6117" lon="-0.20377">
        <ele>1513</ele>
        <time>2017-07-30T09:40:36Z</time>
      </trkpt>
      <trkpt lat="42.61171" lon="-0.2038">
        <ele>1513.8</ele>
        <time>2017-07-30T09:40:38Z</time>
      </trkpt>
      <trkpt lat="42.61173" lon="-0.20383">
        <ele>1514.6</ele>
        <time>2017-07-30T09:40:40Z</time>
      </trkpt>
      <trkpt lat="42.61175" lon="-0.20386">
        <ele>1515.2</ele>
        <time>2017-07-30T09:40:42Z</time>
      </trkpt>
      <trkpt lat="42.61178" lon="-0.20389">
        <ele>1515.8</ele>
        <time>2017-07-30T09:40:44Z</time>
      </trkpt>
      <trkpt lat="42.61181" lon="-0.20391">
        <ele>1516.3</ele>
        <time>2017-07-30T09:40:46Z</time>
      </trkpt>
      <trkpt lat="42.61184" lon="-0.20392">
        <ele>1515.4</ele>
        <time>2017-07-30T09:40:48Z</time>
      </trkpt>
      <trkpt lat="42.61187" lon="-0.20394">
        <ele>1514.4</ele>
        <time>2017-07-30T09:40:50Z</time>
      </trkpt>
      <trkpt lat="42.6119" lon="-0.20396">
        <ele>1513.6</ele>
        <time>2017-07-30T09:40:52Z</time>
      </trkpt>
      <trkpt lat="42.61192" lon="-0.20399">
        <ele>1513.2</ele>
        <time>2017-07-30T09:40:54Z</time>
      </trkpt>
      <trkpt lat="42.61195" lon="-0.20402">
        <ele>1512.7</ele>
        <time>2017-07-30T09:40:56Z</time>
      </trkpt>
      <trkpt lat="42.61197" lon="-0.20404">
        <ele>1512.6</ele>
        <time>2017-07-30T09:40:58Z</time>
      </trkpt>
      <trkpt lat="42.612" lon="-0.20406">
        <ele>1512.5</ele>
        <time>2017-07-30T09:41:00Z</time>
      </trkpt>
      <trkpt lat="42.61202" lon="-0.20408">
        <ele>1512.4</ele>
        <time>2017-07-30T09:41:02Z</time>
      </trkpt>
      <trkpt lat="42.61205" lon="-0.2041">
        <ele>1512.1</ele>
        <time>2017-07-30T09:41:04Z</time>
      </trkpt>
      <trkpt lat="42.61208" lon="-0.20413">
        <ele>1512.1</ele>
        <time>2017-07-30T09:41:06Z</time>
      </trkpt>
      <trkpt lat="42.6121" lon="-0.20415">
        <ele>1512.3</ele>
        <time>2017-07-30T09:41:08Z</time>
      </trkpt>
      <trkpt lat="42.61212" lon="-0.20417">
        <ele>1512.4</ele>
        <time>2017-07-30T09:41:10Z</time>
      </trkpt>
      <trkpt lat="42.61215" lon="-0.2042">
        <ele>1512.1</ele>
        <time>2017-07-30T09:41:12Z</time>
      </trkpt>
      <trkpt lat="42.61217" lon="-0.20422">
        <ele>1511.8</ele>
        <time>2017-07-30T09:41:14Z</time>
      </trkpt>
      <trkpt lat="42.6122" lon="-0.20424">
        <ele>1511.7</ele>
        <time>2017-07-30T09:41:16Z</time>
      </trkpt>
      <trkpt lat="42.61222" lon="-0.20426">
        <ele>1511.6</ele>
        <time>2017-07-30T09:41:18Z</time>
      </trkpt>
      <trkpt lat="42.61225" lon="-0.20427">
        <ele>1511.7</ele>
        <time>2017-07-30T09:41:20Z</time>
      </trkpt>
      <trkpt lat="42.61229" lon="-0.20426">
        <ele>1511.9</ele>
        <time>2017-07-30T09:41:22Z</time>
      </trkpt>
      <trkpt lat="42.61233" lon="-0.20426">
        <ele>1511.5</ele>
        <time>2017-07-30T09:41:24Z</time>
      </trkpt>
      <trkpt lat="42.61236" lon="-0.20425">
        <ele>1510.9</ele>
        <time>2017-07-30T09:41:26Z</time>
      </trkpt>
      <trkpt lat="42.6124" lon="-0.20424">
        <ele>1510.5</ele>
        <time>2017-07-30T09:41:28Z</time>
      </trkpt>
      <trkpt lat="42.61243" lon="-0.20423">
        <ele>1510.3</ele>
        <time>2017-07-30T09:41:30Z</time>
      </trkpt>
      <trkpt lat="42.61245" lon="-0.20422">
        <ele>1510</ele>
        <time>2017-07-30T09:41:32Z</time>
      </trkpt>
      <trkpt lat="42.61248" lon="-0.20421">
        <ele>1509.5</ele>
        <time>2017-07-30T09:41:34Z</time>
      </trkpt>
      <trkpt lat="42.61251" lon="-0.20419">
        <ele>1508.9</ele>
        <time>2017-07-30T09:41:36Z</time>
      </trkpt>
      <trkpt lat="42.61254" lon="-0.20417">
        <ele>1508.5</ele>
        <time>2017-07-30T09:41:38Z</time>
      </trkpt>
      <trkpt lat="42.61256" lon="-0.20414">
        <ele>1508.3</ele>
        <time>2017-07-30T09:41:40Z</time>
      </trkpt>
      <trkpt lat="42.61258" lon="-0.20411">
        <ele>1508.1</ele>
        <time>2017-07-30T09:41:42Z</time>
      </trkpt>
      <trkpt lat="42.6126" lon="-0.20408">
        <ele>1507.7</ele>
        <time>2017-07-30T09:41:44Z</time>
      </trkpt>
      <trkpt lat="42.61263" lon="-0.20406">
        <ele>1507.1</ele>
        <time>2017-07-30T09:41:46Z</time>
      </trkpt>
      <trkpt lat="42.61265" lon="-0.20404">
        <ele>1506.6</ele>
        <time>2017-07-30T09:41:48Z</time>
      </trkpt>
      <trkpt lat="42.61268" lon="-0.20401">
        <ele>1505.5</ele>
        <time>2017-07-30T09:41:50Z</time>
      </trkpt>
      <trkpt lat="42.6127" lon="-0.20398">
        <ele>1504.2</ele>
        <time>2017-07-30T09:41:52Z</time>
      </trkpt>
      <trkpt lat="42.61272" lon="-0.20394">
        <ele>1502.9</ele>
        <time>2017-07-30T09:41:54Z</time>
      </trkpt>
      <trkpt lat="42.61274" lon="-0.20389">
        <ele>1501.5</ele>
        <time>2017-07-30T09:41:56Z</time>
      </trkpt>
      <trkpt lat="42.61276" lon="-0.20385">
        <ele>1500.2</ele>
        <time>2017-07-30T09:41:58Z</time>
      </trkpt>
      <trkpt lat="42.61277" lon="-0.20381">
        <ele>1499.4</ele>
        <time>2017-07-30T09:42:00Z</time>
      </trkpt>
      <trkpt lat="42.61279" lon="-0.20377">
        <ele>1499.1</ele>
        <time>2017-07-30T09:42:02Z</time>
      </trkpt>
      <trkpt lat="42.61281" lon="-0.20374">
        <ele>1498.4</ele>
        <time>2017-07-30T09:42:05Z</time>
      </trkpt>
      <trkpt lat="42.61284" lon="-0.20373">
        <ele>1497.4</ele>
        <time>2017-07-30T09:42:10Z</time>
      </trkpt>
      <trkpt lat="42.61286" lon="-0.20376">
        <ele>1497.8</ele>
        <time>2017-07-30T09:42:17Z</time>
      </trkpt>
      <trkpt lat="42.61288" lon="-0.20379">
        <ele>1499.1</ele>
        <time>2017-07-30T09:42:20Z</time>
      </trkpt>
      <trkpt lat="42.61291" lon="-0.20382">
        <ele>1500.7</ele>
        <time>2017-07-30T09:42:23Z</time>
      </trkpt>
      <trkpt lat="42.61294" lon="-0.20384">
        <ele>1501.4</ele>
        <time>2017-07-30T09:42:26Z</time>
      </trkpt>
      <trkpt lat="42.61297" lon="-0.20388">
        <ele>1502.2</ele>
        <time>2017-07-30T09:42:29Z</time>
      </trkpt>
      <trkpt lat="42.61299" lon="-0.2039">
        <ele>1502.5</ele>
        <time>2017-07-30T09:42:31Z</time>
      </trkpt>
      <trkpt lat="42.61302" lon="-0.20393">
        <ele>1502.9</ele>
        <time>2017-07-30T09:42:33Z</time>
      </trkpt>
      <trkpt lat="42.61304" lon="-0.20397">
        <ele>1503.6</ele>
        <time>2017-07-30T09:42:35Z</time>
      </trkpt>
      <trkpt lat="42.61307" lon="-0.20399">
        <ele>1504.4</ele>
        <time>2017-07-30T09:42:37Z</time>
      </trkpt>
      <trkpt lat="42.61309" lon="-0.20401">
        <ele>1505.2</ele>
        <time>2017-07-30T09:42:39Z</time>
      </trkpt>
      <trkpt lat="42.61311" lon="-0.20404">
        <ele>1505.6</ele>
        <time>2017-07-30T09:42:41Z</time>
      </trkpt>
      <trkpt lat="42.61314" lon="-0.20407">
        <ele>1506</ele>
        <time>2017-07-30T09:42:43Z</time>
      </trkpt>
      <trkpt lat="42.61316" lon="-0.2041">
        <ele>1506.9</ele>
        <time>2017-07-30T09:42:45Z</time>
      </trkpt>
      <trkpt lat="42.61319" lon="-0.20413">
        <ele>1508.7</ele>
        <time>2017-07-30T09:42:48Z</time>
      </trkpt>
      <trkpt lat="42.61322" lon="-0.20416">
        <ele>1510</ele>
        <time>2017-07-30T09:42:50Z</time>
      </trkpt>
      <trkpt lat="42.61325" lon="-0.20418">
        <ele>1510.8</ele>
        <time>2017-07-30T09:42:52Z</time>
      </trkpt>
      <trkpt lat="42.61328" lon="-0.20421">
        <ele>1511.4</ele>
        <time>2017-07-30T09:42:54Z</time>
      </trkpt>
      <trkpt lat="42.61331" lon="-0.20423">
        <ele>1511.9</ele>
        <time>2017-07-30T09:42:56Z</time>
      </trkpt>
      <trkpt lat="42.61334" lon="-0.20426">
        <ele>1512.4</ele>
        <time>2017-07-30T09:42:58Z</time>
      </trkpt>
      <trkpt lat="42.61337" lon="-0.20428">
        <ele>1512.5</ele>
        <time>2017-07-30T09:43:00Z</time>
      </trkpt>
      <trkpt lat="42.61341" lon="-0.2043">
        <ele>1512.7</ele>
        <time>2017-07-30T09:43:02Z</time>
      </trkpt>
      <trkpt lat="42.61345" lon="-0.20432">
        <ele>1512.9</ele>
        <time>2017-07-30T09:43:04Z</time>
      </trkpt>
      <trkpt lat="42.61349" lon="-0.20432">
        <ele>1512.4</ele>
        <time>2017-07-30T09:43:06Z</time>
      </trkpt>
      <trkpt lat="42.61353" lon="-0.20432">
        <ele>1511.1</ele>
        <time>2017-07-30T09:43:08Z</time>
      </trkpt>
      <trkpt lat="42.61357" lon="-0.20431">
        <ele>1509.2</ele>
        <time>2017-07-30T09:43:10Z</time>
      </trkpt>
      <trkpt lat="42.61361" lon="-0.20428">
        <ele>1508.5</ele>
        <time>2017-07-30T09:43:12Z</time>
      </trkpt>
      <trkpt lat="42.61363" lon="-0.20425">
        <ele>1508</ele>
        <time>2017-07-30T09:43:13Z</time>
      </trkpt>
      <trkpt lat="42.61365" lon="-0.20422">
        <ele>1507.2</ele>
        <time>2017-07-30T09:43:14Z</time>
      </trkpt>
      <trkpt lat="42.61366" lon="-0.20418">
        <ele>1506.4</ele>
        <time>2017-07-30T09:43:15Z</time>
      </trkpt>
      <trkpt lat="42.61367" lon="-0.20415">
        <ele>1505.2</ele>
        <time>2017-07-30T09:43:16Z</time>
      </trkpt>
      <trkpt lat="42.61368" lon="-0.20408">
        <ele>1503.3</ele>
        <time>2017-07-30T09:43:18Z</time>
      </trkpt>
      <trkpt lat="42.61369" lon="-0.20401">
        <ele>1501.9</ele>
        <time>2017-07-30T09:43:20Z</time>
      </trkpt>
      <trkpt lat="42.61371" lon="-0.20395">
        <ele>1501</ele>
        <time>2017-07-30T09:43:22Z</time>
      </trkpt>
      <trkpt lat="42.61373" lon="-0.2039">
        <ele>1499.8</ele>
        <time>2017-07-30T09:43:24Z</time>
      </trkpt>
      <trkpt lat="42.61375" lon="-0.20384">
        <ele>1497.9</ele>
        <time>2017-07-30T09:43:26Z</time>
      </trkpt>
      <trkpt lat="42.61376" lon="-0.20379">
        <ele>1496.3</ele>
        <time>2017-07-30T09:43:28Z</time>
      </trkpt>
      <trkpt lat="42.61378" lon="-0.20373">
        <ele>1495</ele>
        <time>2017-07-30T09:43:30Z</time>
      </trkpt>
      <trkpt lat="42.6138" lon="-0.20368">
        <ele>1493</ele>
        <time>2017-07-30T09:43:32Z</time>
      </trkpt>
      <trkpt lat="42.61381" lon="-0.20362">
        <ele>1490.9</ele>
        <time>2017-07-30T09:43:34Z</time>
      </trkpt>
      <trkpt lat="42.61383" lon="-0.20357">
        <ele>1489.2</ele>
        <time>2017-07-30T09:43:36Z</time>
      </trkpt>
      <trkpt lat="42.61384" lon="-0.20351">
        <ele>1487.4</ele>
        <time>2017-07-30T09:43:38Z</time>
      </trkpt>
      <trkpt lat="42.61386" lon="-0.20345">
        <ele>1485.5</ele>
        <time>2017-07-30T09:43:40Z</time>
      </trkpt>
      <trkpt lat="42.61388" lon="-0.2034">
        <ele>1485</ele>
        <time>2017-07-30T09:43:42Z</time>
      </trkpt>
      <trkpt lat="42.61389" lon="-0.20335">
        <ele>1485.5</ele>
        <time>2017-07-30T09:43:44Z</time>
      </trkpt>
      <trkpt lat="42.61391" lon="-0.2033">
        <ele>1486.6</ele>
        <time>2017-07-30T09:43:46Z</time>
      </trkpt>
      <trkpt lat="42.61394" lon="-0.20325">
        <ele>1485.1</ele>
        <time>2017-07-30T09:43:48Z</time>
      </trkpt>
      <trkpt lat="42.61396" lon="-0.20321">
        <ele>1484.2</ele>
        <time>2017-07-30T09:43:50Z</time>
      </trkpt>
      <trkpt lat="42.614" lon="-0.20318">
        <ele>1484.1</ele>
        <time>2017-07-30T09:43:52Z</time>
      </trkpt>
      <trkpt lat="42.61404" lon="-0.20317">
        <ele>1487.2</ele>
        <time>2017-07-30T09:43:54Z</time>
      </trkpt>
      <trkpt lat="42.61409" lon="-0.20319">
        <ele>1490.5</ele>
        <time>2017-07-30T09:43:56Z</time>
      </trkpt>
      <trkpt lat="42.61413" lon="-0.20323">
        <ele>1493.7</ele>
        <time>2017-07-30T09:43:58Z</time>
      </trkpt>
      <trkpt lat="42.61417" lon="-0.20327">
        <ele>1496.1</ele>
        <time>2017-07-30T09:44:00Z</time>
      </trkpt>
      <trkpt lat="42.61421" lon="-0.20332">
        <ele>1499.1</ele>
        <time>2017-07-30T09:44:02Z</time>
      </trkpt>
      <trkpt lat="42.61423" lon="-0.20335">
        <ele>1500.9</ele>
        <time>2017-07-30T09:44:03Z</time>
      </trkpt>
      <trkpt lat="42.61425" lon="-0.20338">
        <ele>1502.5</ele>
        <time>2017-07-30T09:44:04Z</time>
      </trkpt>
      <trkpt lat="42.61428" lon="-0.2034">
        <ele>1503.9</ele>
        <time>2017-07-30T09:44:05Z</time>
      </trkpt>
      <trkpt lat="42.6143" lon="-0.20343">
        <ele>1505.2</ele>
        <time>2017-07-30T09:44:06Z</time>
      </trkpt>
      <trkpt lat="42.61432" lon="-0.20345">
        <ele>1506.7</ele>
        <time>2017-07-30T09:44:07Z</time>
      </trkpt>
      <trkpt lat="42.61435" lon="-0.20347">
        <ele>1508.2</ele>
        <time>2017-07-30T09:44:08Z</time>
      </trkpt>
      <trkpt lat="42.61437" lon="-0.20349">
        <ele>1509.4</ele>
        <time>2017-07-30T09:44:09Z</time>
      </trkpt>
      <trkpt lat="42.6144" lon="-0.2035">
        <ele>1510.2</ele>
        <time>2017-07-30T09:44:10Z</time>
      </trkpt>
      <trkpt lat="42.61443" lon="-0.20351">
        <ele>1511</ele>
        <time>2017-07-30T09:44:11Z</time>
      </trkpt>
      <trkpt lat="42.61445" lon="-0.20352">
        <ele>1511.9</ele>
        <time>2017-07-30T09:44:12Z</time>
      </trkpt>
      <trkpt lat="42.61448" lon="-0.20352">
        <ele>1512.6</ele>
        <time>2017-07-30T09:44:13Z</time>
      </trkpt>
      <trkpt lat="42.61451" lon="-0.20352">
        <ele>1513.4</ele>
        <time>2017-07-30T09:44:14Z</time>
      </trkpt>
      <trkpt lat="42.61454" lon="-0.20351">
        <ele>1514.6</ele>
        <time>2017-07-30T09:44:15Z</time>
      </trkpt>
      <trkpt lat="42.61458" lon="-0.2035">
        <ele>1515.8</ele>
        <time>2017-07-30T09:44:16Z</time>
      </trkpt>
      <trkpt lat="42.61461" lon="-0.20349">
        <ele>1516.2</ele>
        <time>2017-07-30T09:44:17Z</time>
      </trkpt>
      <trkpt lat="42.61464" lon="-0.20347">
        <ele>1516.4</ele>
        <time>2017-07-30T09:44:18Z</time>
      </trkpt>
      <trkpt lat="42.61467" lon="-0.20345">
        <ele>1516.6</ele>
        <time>2017-07-30T09:44:19Z</time>
      </trkpt>
      <trkpt lat="42.6147" lon="-0.20343">
        <ele>1516.9</ele>
        <time>2017-07-30T09:44:20Z</time>
      </trkpt>
      <trkpt lat="42.61473" lon="-0.20341">
        <ele>1517</ele>
        <time>2017-07-30T09:44:21Z</time>
      </trkpt>
      <trkpt lat="42.61476" lon="-0.20338">
        <ele>1517</ele>
        <time>2017-07-30T09:44:22Z</time>
      </trkpt>
      <trkpt lat="42.61479" lon="-0.20336">
        <ele>1516.3</ele>
        <time>2017-07-30T09:44:23Z</time>
      </trkpt>
      <trkpt lat="42.61482" lon="-0.20334">
        <ele>1515.5</ele>
        <time>2017-07-30T09:44:24Z</time>
      </trkpt>
      <trkpt lat="42.61485" lon="-0.20331">
        <ele>1514.5</ele>
        <time>2017-07-30T09:44:25Z</time>
      </trkpt>
      <trkpt lat="42.61488" lon="-0.20328">
        <ele>1513.5</ele>
        <time>2017-07-30T09:44:26Z</time>
      </trkpt>
      <trkpt lat="42.6149" lon="-0.20325">
        <ele>1512.6</ele>
        <time>2017-07-30T09:44:27Z</time>
      </trkpt>
      <trkpt lat="42.61492" lon="-0.20322">
        <ele>1512.5</ele>
        <time>2017-07-30T09:44:28Z</time>
      </trkpt>
      <trkpt lat="42.61495" lon="-0.20319">
        <ele>1512.5</ele>
        <time>2017-07-30T09:44:29Z</time>
      </trkpt>
      <trkpt lat="42.61497" lon="-0.20316">
        <ele>1512.5</ele>
        <time>2017-07-30T09:44:30Z</time>
      </trkpt>
      <trkpt lat="42.61499" lon="-0.20313">
        <ele>1512.5</ele>
        <time>2017-07-30T09:44:31Z</time>
      </trkpt>
      <trkpt lat="42.61502" lon="-0.20308">
        <ele>1512.1</ele>
        <time>2017-07-30T09:44:33Z</time>
      </trkpt>
      <trkpt lat="42.61505" lon="-0.20301">
        <ele>1510.3</ele>
        <time>2017-07-30T09:44:35Z</time>
      </trkpt>
      <trkpt lat="42.61506" lon="-0.20298">
        <ele>1509.6</ele>
        <time>2017-07-30T09:44:36Z</time>
      </trkpt>
      <trkpt lat="42.61507" lon="-0.20294">
        <ele>1509.6</ele>
        <time>2017-07-30T09:44:37Z</time>
      </trkpt>
      <trkpt lat="42.61509" lon="-0.20291">
        <ele>1509.6</ele>
        <time>2017-07-30T09:44:38Z</time>
      </trkpt>
      <trkpt lat="42.61511" lon="-0.20287">
        <ele>1509.5</ele>
        <time>2017-07-30T09:44:39Z</time>
      </trkpt>
      <trkpt lat="42.61513" lon="-0.20284">
        <ele>1509.2</ele>
        <time>2017-07-30T09:44:40Z</time>
      </trkpt>
      <trkpt lat="42.61515" lon="-0.20281">
        <ele>1509</ele>
        <time>2017-07-30T09:44:41Z</time>
      </trkpt>
      <trkpt lat="42.61517" lon="-0.20278">
        <ele>1509</ele>
        <time>2017-07-30T09:44:42Z</time>
      </trkpt>
      <trkpt lat="42.61519" lon="-0.20275">
        <ele>1509.1</ele>
        <time>2017-07-30T09:44:43Z</time>
      </trkpt>
      <trkpt lat="42.61521" lon="-0.20271">
        <ele>1509.2</ele>
        <time>2017-07-30T09:44:44Z</time>
      </trkpt>
      <trkpt lat="42.61523" lon="-0.20268">
        <ele>1509.4</ele>
        <time>2017-07-30T09:44:45Z</time>
      </trkpt>
      <trkpt lat="42.61524" lon="-0.20264">
        <ele>1509.6</ele>
        <time>2017-07-30T09:44:46Z</time>
      </trkpt>
      <trkpt lat="42.61526" lon="-0.20261">
        <ele>1509.5</ele>
        <time>2017-07-30T09:44:47Z</time>
      </trkpt>
      <trkpt lat="42.61528" lon="-0.20257">
        <ele>1509.2</ele>
        <time>2017-07-30T09:44:48Z</time>
      </trkpt>
      <trkpt lat="42.6153" lon="-0.20254">
        <ele>1509</ele>
        <time>2017-07-30T09:44:49Z</time>
      </trkpt>
      <trkpt lat="42.61532" lon="-0.20251">
        <ele>1508.9</ele>
        <time>2017-07-30T09:44:50Z</time>
      </trkpt>
      <trkpt lat="42.61534" lon="-0.20247">
        <ele>1508.9</ele>
        <time>2017-07-30T09:44:51Z</time>
      </trkpt>
      <trkpt lat="42.61536" lon="-0.20243">
        <ele>1509</ele>
        <time>2017-07-30T09:44:52Z</time>
      </trkpt>
      <trkpt lat="42.61539" lon="-0.2024">
        <ele>1509.2</ele>
        <time>2017-07-30T09:44:53Z</time>
      </trkpt>
      <trkpt lat="42.61541" lon="-0.20236">
        <ele>1509.3</ele>
        <time>2017-07-30T09:44:54Z</time>
      </trkpt>
      <trkpt lat="42.61543" lon="-0.20231">
        <ele>1509.1</ele>
        <time>2017-07-30T09:44:55Z</time>
      </trkpt>
      <trkpt lat="42.61545" lon="-0.20227">
        <ele>1509.3</ele>
        <time>2017-07-30T09:44:56Z</time>
      </trkpt>
      <trkpt lat="42.61547" lon="-0.20222">
        <ele>1509.9</ele>
        <time>2017-07-30T09:44:57Z</time>
      </trkpt>
      <trkpt lat="42.6155" lon="-0.20218">
        <ele>1509.2</ele>
        <time>2017-07-30T09:44:58Z</time>
      </trkpt>
      <trkpt lat="42.61553" lon="-0.20214">
        <ele>1508.3</ele>
        <time>2017-07-30T09:44:59Z</time>
      </trkpt>
      <trkpt lat="42.61556" lon="-0.2021">
        <ele>1508.1</ele>
        <time>2017-07-30T09:45:00Z</time>
      </trkpt>
      <trkpt lat="42.6156" lon="-0.20208">
        <ele>1508.8</ele>
        <time>2017-07-30T09:45:01Z</time>
      </trkpt>
      <trkpt lat="42.61564" lon="-0.20206">
        <ele>1510.4</ele>
        <time>2017-07-30T09:45:02Z</time>
      </trkpt>
      <trkpt lat="42.61568" lon="-0.20208">
        <ele>1512</ele>
        <time>2017-07-30T09:45:03Z</time>
      </trkpt>
      <trkpt lat="42.61572" lon="-0.20212">
        <ele>1513.7</ele>
        <time>2017-07-30T09:45:04Z</time>
      </trkpt>
      <trkpt lat="42.61574" lon="-0.20219">
        <ele>1515.7</ele>
        <time>2017-07-30T09:45:05Z</time>
      </trkpt>
      <trkpt lat="42.61576" lon="-0.20226">
        <ele>1517.9</ele>
        <time>2017-07-30T09:45:06Z</time>
      </trkpt>
      <trkpt lat="42.61576" lon="-0.20232">
        <ele>1520.1</ele>
        <time>2017-07-30T09:45:07Z</time>
      </trkpt>
      <trkpt lat="42.61576" lon="-0.20237">
        <ele>1521.4</ele>
        <time>2017-07-30T09:45:08Z</time>
      </trkpt>
      <trkpt lat="42.61576" lon="-0.20242">
        <ele>1522.4</ele>
        <time>2017-07-30T09:45:09Z</time>
      </trkpt>
      <trkpt lat="42.61576" lon="-0.20246">
        <ele>1523.2</ele>
        <time>2017-07-30T09:45:10Z</time>
      </trkpt>
      <trkpt lat="42.61575" lon="-0.20249">
        <ele>1523.8</ele>
        <time>2017-07-30T09:45:11Z</time>
      </trkpt>
      <trkpt lat="42.61575" lon="-0.20256">
        <ele>1525.1</ele>
        <time>2017-07-30T09:45:13Z</time>
      </trkpt>
      <trkpt lat="42.61575" lon="-0.20263">
        <ele>1526.8</ele>
        <time>2017-07-30T09:45:15Z</time>
      </trkpt>
      <trkpt lat="42.61576" lon="-0.20269">
        <ele>1527.9</ele>
        <time>2017-07-30T09:45:17Z</time>
      </trkpt>
      <trkpt lat="42.61576" lon="-0.20275">
        <ele>1528.7</ele>
        <time>2017-07-30T09:45:19Z</time>
      </trkpt>
      <trkpt lat="42.61577" lon="-0.2028">
        <ele>1529.5</ele>
        <time>2017-07-30T09:45:21Z</time>
      </trkpt>
      <trkpt lat="42.61578" lon="-0.20285">
        <ele>1530.4</ele>
        <time>2017-07-30T09:45:23Z</time>
      </trkpt>
      <trkpt lat="42.61579" lon="-0.20289">
        <ele>1531.8</ele>
        <time>2017-07-30T09:45:25Z</time>
      </trkpt>
      <trkpt lat="42.61579" lon="-0.20294">
        <ele>1533</ele>
        <time>2017-07-30T09:45:27Z</time>
      </trkpt>
      <trkpt lat="42.61579" lon="-0.20298">
        <ele>1533.8</ele>
        <time>2017-07-30T09:45:29Z</time>
      </trkpt>
      <trkpt lat="42.6158" lon="-0.20302">
        <ele>1534.6</ele>
        <time>2017-07-30T09:45:31Z</time>
      </trkpt>
      <trkpt lat="42.61581" lon="-0.20306">
        <ele>1535.3</ele>
        <time>2017-07-30T09:45:33Z</time>
      </trkpt>
      <trkpt lat="42.61583" lon="-0.2031">
        <ele>1536.1</ele>
        <time>2017-07-30T09:45:35Z</time>
      </trkpt>
      <trkpt lat="42.61584" lon="-0.20314">
        <ele>1536.8</ele>
        <time>2017-07-30T09:45:37Z</time>
      </trkpt>
      <trkpt lat="42.61586" lon="-0.20317">
        <ele>1537.4</ele>
        <time>2017-07-30T09:45:39Z</time>
      </trkpt>
      <trkpt lat="42.61589" lon="-0.20321">
        <ele>1538</ele>
        <time>2017-07-30T09:45:41Z</time>
      </trkpt>
      <trkpt lat="42.61592" lon="-0.20323">
        <ele>1538</ele>
        <time>2017-07-30T09:45:43Z</time>
      </trkpt>
      <trkpt lat="42.61596" lon="-0.20324">
        <ele>1538.2</ele>
        <time>2017-07-30T09:45:45Z</time>
      </trkpt>
      <trkpt lat="42.61599" lon="-0.20325">
        <ele>1538.8</ele>
        <time>2017-07-30T09:45:47Z</time>
      </trkpt>
      <trkpt lat="42.61603" lon="-0.20325">
        <ele>1539.3</ele>
        <time>2017-07-30T09:45:49Z</time>
      </trkpt>
      <trkpt lat="42.61606" lon="-0.20324">
        <ele>1539.5</ele>
        <time>2017-07-30T09:45:51Z</time>
      </trkpt>
      <trkpt lat="42.6161" lon="-0.20324">
        <ele>1539.6</ele>
        <time>2017-07-30T09:45:53Z</time>
      </trkpt>
      <trkpt lat="42.61614" lon="-0.20323">
        <ele>1539.9</ele>
        <time>2017-07-30T09:45:55Z</time>
      </trkpt>
      <trkpt lat="42.61618" lon="-0.20324">
        <ele>1540.2</ele>
        <time>2017-07-30T09:45:57Z</time>
      </trkpt>
      <trkpt lat="42.61621" lon="-0.20325">
        <ele>1540.5</ele>
        <time>2017-07-30T09:45:59Z</time>
      </trkpt>
      <trkpt lat="42.61624" lon="-0.20326">
        <ele>1540.7</ele>
        <time>2017-07-30T09:46:01Z</time>
      </trkpt>
      <trkpt lat="42.61628" lon="-0.20328">
        <ele>1540.9</ele>
        <time>2017-07-30T09:46:03Z</time>
      </trkpt>
      <trkpt lat="42.61631" lon="-0.20329">
        <ele>1541.7</ele>
        <time>2017-07-30T09:46:05Z</time>
      </trkpt>
      <trkpt lat="42.61634" lon="-0.20331">
        <ele>1542.7</ele>
        <time>2017-07-30T09:46:07Z</time>
      </trkpt>
      <trkpt lat="42.61637" lon="-0.20333">
        <ele>1543.4</ele>
        <time>2017-07-30T09:46:09Z</time>
      </trkpt>
      <trkpt lat="42.61641" lon="-0.20335">
        <ele>1544.1</ele>
        <time>2017-07-30T09:46:11Z</time>
      </trkpt>
      <trkpt lat="42.61645" lon="-0.20336">
        <ele>1544.3</ele>
        <time>2017-07-30T09:46:13Z</time>
      </trkpt>
      <trkpt lat="42.61648" lon="-0.20336">
        <ele>1544.1</ele>
        <time>2017-07-30T09:46:15Z</time>
      </trkpt>
      <trkpt lat="42.61652" lon="-0.20336">
        <ele>1543.8</ele>
        <time>2017-07-30T09:46:17Z</time>
      </trkpt>
      <trkpt lat="42.61655" lon="-0.20335">
        <ele>1543.5</ele>
        <time>2017-07-30T09:46:19Z</time>
      </trkpt>
      <trkpt lat="42.61659" lon="-0.20335">
        <ele>1543</ele>
        <time>2017-07-30T09:46:21Z</time>
      </trkpt>
      <trkpt lat="42.61663" lon="-0.20333">
        <ele>1541.6</ele>
        <time>2017-07-30T09:46:23Z</time>
      </trkpt>
      <trkpt lat="42.61668" lon="-0.20332">
        <ele>1539.9</ele>
        <time>2017-07-30T09:46:25Z</time>
      </trkpt>
      <trkpt lat="42.61671" lon="-0.2033">
        <ele>1538.5</ele>
        <time>2017-07-30T09:46:27Z</time>
      </trkpt>
      <trkpt lat="42.61675" lon="-0.20328">
        <ele>1537.1</ele>
        <time>2017-07-30T09:46:29Z</time>
      </trkpt>
      <trkpt lat="42.61678" lon="-0.20326">
        <ele>1535.8</ele>
        <time>2017-07-30T09:46:31Z</time>
      </trkpt>
      <trkpt lat="42.61681" lon="-0.20325">
        <ele>1534.3</ele>
        <time>2017-07-30T09:46:33Z</time>
      </trkpt>
      <trkpt lat="42.61685" lon="-0.20325">
        <ele>1534.6</ele>
        <time>2017-07-30T09:46:35Z</time>
      </trkpt>
      <trkpt lat="42.61688" lon="-0.20327">
        <ele>1535.6</ele>
        <time>2017-07-30T09:46:37Z</time>
      </trkpt>
      <trkpt lat="42.6169" lon="-0.20329">
        <ele>1536.6</ele>
        <time>2017-07-30T09:46:39Z</time>
      </trkpt>
      <trkpt lat="42.61693" lon="-0.20333">
        <ele>1537.9</ele>
        <time>2017-07-30T09:46:42Z</time>
      </trkpt>
      <trkpt lat="42.61696" lon="-0.20337">
        <ele>1539.2</ele>
        <time>2017-07-30T09:46:45Z</time>
      </trkpt>
      <trkpt lat="42.61698" lon="-0.2034">
        <ele>1539.7</ele>
        <time>2017-07-30T09:46:47Z</time>
      </trkpt>
      <trkpt lat="42.617" lon="-0.20342">
        <ele>1540.1</ele>
        <time>2017-07-30T09:46:49Z</time>
      </trkpt>
      <trkpt lat="42.61701" lon="-0.20345">
        <ele>1540.7</ele>
        <time>2017-07-30T09:46:51Z</time>
      </trkpt>
      <trkpt lat="42.61704" lon="-0.20349">
        <ele>1542.8</ele>
        <time>2017-07-30T09:46:54Z</time>
      </trkpt>
      <trkpt lat="42.61706" lon="-0.20351">
        <ele>1544.2</ele>
        <time>2017-07-30T09:46:56Z</time>
      </trkpt>
      <trkpt lat="42.61708" lon="-0.20354">
        <ele>1545.1</ele>
        <time>2017-07-30T09:46:58Z</time>
      </trkpt>
      <trkpt lat="42.6171" lon="-0.20357">
        <ele>1545.7</ele>
        <time>2017-07-30T09:47:00Z</time>
      </trkpt>
      <trkpt lat="42.61714" lon="-0.2036">
        <ele>1546.6</ele>
        <time>2017-07-30T09:47:03Z</time>
      </trkpt>
      <trkpt lat="42.61716" lon="-0.20362">
        <ele>1547.9</ele>
        <time>2017-07-30T09:47:05Z</time>
      </trkpt>
      <trkpt lat="42.61719" lon="-0.20364">
        <ele>1549.1</ele>
        <time>2017-07-30T09:47:07Z</time>
      </trkpt>
      <trkpt lat="42.61721" lon="-0.20367">
        <ele>1550</ele>
        <time>2017-07-30T09:47:09Z</time>
      </trkpt>
      <trkpt lat="42.61724" lon="-0.20369">
        <ele>1550.5</ele>
        <time>2017-07-30T09:47:11Z</time>
      </trkpt>
      <trkpt lat="42.61727" lon="-0.20372">
        <ele>1551</ele>
        <time>2017-07-30T09:47:13Z</time>
      </trkpt>
      <trkpt lat="42.61729" lon="-0.20374">
        <ele>1552.4</ele>
        <time>2017-07-30T09:47:15Z</time>
      </trkpt>
      <trkpt lat="42.61731" lon="-0.20376">
        <ele>1553.8</ele>
        <time>2017-07-30T09:47:17Z</time>
      </trkpt>
      <trkpt lat="42.61734" lon="-0.20379">
        <ele>1555.2</ele>
        <time>2017-07-30T09:47:19Z</time>
      </trkpt>
      <trkpt lat="42.61737" lon="-0.20381">
        <ele>1555.7</ele>
        <time>2017-07-30T09:47:21Z</time>
      </trkpt>
      <trkpt lat="42.6174" lon="-0.20384">
        <ele>1556.3</ele>
        <time>2017-07-30T09:47:23Z</time>
      </trkpt>
      <trkpt lat="42.61742" lon="-0.20386">
        <ele>1557.1</ele>
        <time>2017-07-30T09:47:25Z</time>
      </trkpt>
      <trkpt lat="42.61745" lon="-0.20389">
        <ele>1558.1</ele>
        <time>2017-07-30T09:47:27Z</time>
      </trkpt>
      <trkpt lat="42.61747" lon="-0.20391">
        <ele>1559.1</ele>
        <time>2017-07-30T09:47:29Z</time>
      </trkpt>
      <trkpt lat="42.6175" lon="-0.20394">
        <ele>1559</ele>
        <time>2017-07-30T09:47:31Z</time>
      </trkpt>
      <trkpt lat="42.61752" lon="-0.20397">
        <ele>1558.8</ele>
        <time>2017-07-30T09:47:33Z</time>
      </trkpt>
      <trkpt lat="42.61754" lon="-0.204">
        <ele>1558.5</ele>
        <time>2017-07-30T09:47:35Z</time>
      </trkpt>
      <trkpt lat="42.61757" lon="-0.20403">
        <ele>1558.2</ele>
        <time>2017-07-30T09:47:37Z</time>
      </trkpt>
      <trkpt lat="42.61759" lon="-0.20405">
        <ele>1558</ele>
        <time>2017-07-30T09:47:39Z</time>
      </trkpt>
      <trkpt lat="42.61761" lon="-0.20408">
        <ele>1557.6</ele>
        <time>2017-07-30T09:47:41Z</time>
      </trkpt>
      <trkpt lat="42.61763" lon="-0.20411">
        <ele>1556.7</ele>
        <time>2017-07-30T09:47:43Z</time>
      </trkpt>
      <trkpt lat="42.61766" lon="-0.20413">
        <ele>1555.8</ele>
        <time>2017-07-30T09:47:45Z</time>
      </trkpt>
      <trkpt lat="42.61769" lon="-0.20414">
        <ele>1555.3</ele>
        <time>2017-07-30T09:47:47Z</time>
      </trkpt>
      <trkpt lat="42.61772" lon="-0.20416">
        <ele>1555.2</ele>
        <time>2017-07-30T09:47:49Z</time>
      </trkpt>
      <trkpt lat="42.61775" lon="-0.20418">
        <ele>1555.1</ele>
        <time>2017-07-30T09:47:51Z</time>
      </trkpt>
      <trkpt lat="42.61778" lon="-0.2042">
        <ele>1555.6</ele>
        <time>2017-07-30T09:47:53Z</time>
      </trkpt>
      <trkpt lat="42.61781" lon="-0.20422">
        <ele>1556.2</ele>
        <time>2017-07-30T09:47:55Z</time>
      </trkpt>
      <trkpt lat="42.61783" lon="-0.20425">
        <ele>1556.8</ele>
        <time>2017-07-30T09:47:57Z</time>
      </trkpt>
      <trkpt lat="42.61786" lon="-0.20428">
        <ele>1557.3</ele>
        <time>2017-07-30T09:47:59Z</time>
      </trkpt>
      <trkpt lat="42.61788" lon="-0.20431">
        <ele>1557.8</ele>
        <time>2017-07-30T09:48:01Z</time>
      </trkpt>
      <trkpt lat="42.61791" lon="-0.20433">
        <ele>1557.8</ele>
        <time>2017-07-30T09:48:03Z</time>
      </trkpt>
      <trkpt lat="42.61793" lon="-0.20436">
        <ele>1557.8</ele>
        <time>2017-07-30T09:48:05Z</time>
      </trkpt>
      <trkpt lat="42.61795" lon="-0.20439">
        <ele>1557.7</ele>
        <time>2017-07-30T09:48:07Z</time>
      </trkpt>
      <trkpt lat="42.61795" lon="-0.20444">
        <ele>1558.4</ele>
        <time>2017-07-30T09:48:09Z</time>
      </trkpt>
      <trkpt lat="42.61794" lon="-0.20448">
        <ele>1559.1</ele>
        <time>2017-07-30T09:48:11Z</time>
      </trkpt>
      <trkpt lat="42.61792" lon="-0.2045">
        <ele>1559.9</ele>
        <time>2017-07-30T09:48:13Z</time>
      </trkpt>
      <trkpt lat="42.61789" lon="-0.2045">
        <ele>1560.8</ele>
        <time>2017-07-30T09:48:15Z</time>
      </trkpt>
      <trkpt lat="42.61786" lon="-0.20448">
        <ele>1561.9</ele>
        <time>2017-07-30T09:48:17Z</time>
      </trkpt>
      <trkpt lat="42.61784" lon="-0.20446">
        <ele>1562.4</ele>
        <time>2017-07-30T09:48:19Z</time>
      </trkpt>
      <trkpt lat="42.61781" lon="-0.20444">
        <ele>1562.8</ele>
        <time>2017-07-30T09:48:21Z</time>
      </trkpt>
      <trkpt lat="42.61779" lon="-0.20443">
        <ele>1563.2</ele>
        <time>2017-07-30T09:48:23Z</time>
      </trkpt>
      <trkpt lat="42.61776" lon="-0.20441">
        <ele>1563.6</ele>
        <time>2017-07-30T09:48:25Z</time>
      </trkpt>
      <trkpt lat="42.61772" lon="-0.2044">
        <ele>1564</ele>
        <time>2017-07-30T09:48:28Z</time>
      </trkpt>
      <trkpt lat="42.61769" lon="-0.20439">
        <ele>1564.4</ele>
        <time>2017-07-30T09:48:30Z</time>
      </trkpt>
      <trkpt lat="42.61766" lon="-0.20438">
        <ele>1564.5</ele>
        <time>2017-07-30T09:48:32Z</time>
      </trkpt>
      <trkpt lat="42.61763" lon="-0.20436">
        <ele>1564.6</ele>
        <time>2017-07-30T09:48:35Z</time>
      </trkpt>
      <trkpt lat="42.61759" lon="-0.20435">
        <ele>1564.8</ele>
        <time>2017-07-30T09:48:38Z</time>
      </trkpt>
      <trkpt lat="42.61756" lon="-0.20433">
        <ele>1565.1</ele>
        <time>2017-07-30T09:48:40Z</time>
      </trkpt>
      <trkpt lat="42.61753" lon="-0.20432">
        <ele>1565.5</ele>
        <time>2017-07-30T09:48:42Z</time>
      </trkpt>
      <trkpt lat="42.61751" lon="-0.20431">
        <ele>1566</ele>
        <time>2017-07-30T09:48:44Z</time>
      </trkpt>
      <trkpt lat="42.61748" lon="-0.2043">
        <ele>1567</ele>
        <time>2017-07-30T09:48:46Z</time>
      </trkpt>
      <trkpt lat="42.61745" lon="-0.2043">
        <ele>1567.9</ele>
        <time>2017-07-30T09:48:48Z</time>
      </trkpt>
      <trkpt lat="42.61741" lon="-0.20428">
        <ele>1568.5</ele>
        <time>2017-07-30T09:48:51Z</time>
      </trkpt>
      <trkpt lat="42.61737" lon="-0.20426">
        <ele>1568.5</ele>
        <time>2017-07-30T09:48:54Z</time>
      </trkpt>
      <trkpt lat="42.61735" lon="-0.20425">
        <ele>1568.9</ele>
        <time>2017-07-30T09:48:56Z</time>
      </trkpt>
      <trkpt lat="42.61732" lon="-0.20424">
        <ele>1570.1</ele>
        <time>2017-07-30T09:48:58Z</time>
      </trkpt>
      <trkpt lat="42.61729" lon="-0.20423">
        <ele>1571.3</ele>
        <time>2017-07-30T09:49:00Z</time>
      </trkpt>
      <trkpt lat="42.61726" lon="-0.20421">
        <ele>1572.1</ele>
        <time>2017-07-30T09:49:03Z</time>
      </trkpt>
      <trkpt lat="42.61723" lon="-0.20421">
        <ele>1572.3</ele>
        <time>2017-07-30T09:49:05Z</time>
      </trkpt>
      <trkpt lat="42.6172" lon="-0.20421">
        <ele>1572.4</ele>
        <time>2017-07-30T09:49:07Z</time>
      </trkpt>
      <trkpt lat="42.61717" lon="-0.2042">
        <ele>1572.9</ele>
        <time>2017-07-30T09:49:09Z</time>
      </trkpt>
      <trkpt lat="42.61714" lon="-0.20419">
        <ele>1573.5</ele>
        <time>2017-07-30T09:49:11Z</time>
      </trkpt>
      <trkpt lat="42.61711" lon="-0.20419">
        <ele>1573.9</ele>
        <time>2017-07-30T09:49:13Z</time>
      </trkpt>
      <trkpt lat="42.61708" lon="-0.20418">
        <ele>1573.9</ele>
        <time>2017-07-30T09:49:15Z</time>
      </trkpt>
      <trkpt lat="42.61705" lon="-0.20418">
        <ele>1574</ele>
        <time>2017-07-30T09:49:17Z</time>
      </trkpt>
      <trkpt lat="42.61702" lon="-0.20418">
        <ele>1574</ele>
        <time>2017-07-30T09:49:19Z</time>
      </trkpt>
      <trkpt lat="42.61699" lon="-0.20418">
        <ele>1574.1</ele>
        <time>2017-07-30T09:49:21Z</time>
      </trkpt>
      <trkpt lat="42.61696" lon="-0.20418">
        <ele>1574.2</ele>
        <time>2017-07-30T09:49:23Z</time>
      </trkpt>
      <trkpt lat="42.61693" lon="-0.20419">
        <ele>1574</ele>
        <time>2017-07-30T09:49:25Z</time>
      </trkpt>
      <trkpt lat="42.6169" lon="-0.20419">
        <ele>1573.9</ele>
        <time>2017-07-30T09:49:27Z</time>
      </trkpt>
      <trkpt lat="42.61687" lon="-0.2042">
        <ele>1573.6</ele>
        <time>2017-07-30T09:49:29Z</time>
      </trkpt>
      <trkpt lat="42.61684" lon="-0.2042">
        <ele>1573.3</ele>
        <time>2017-07-30T09:49:31Z</time>
      </trkpt>
      <trkpt lat="42.61681" lon="-0.20422">
        <ele>1573</ele>
        <time>2017-07-30T09:49:33Z</time>
      </trkpt>
      <trkpt lat="42.61678" lon="-0.20424">
        <ele>1572.7</ele>
        <time>2017-07-30T09:49:35Z</time>
      </trkpt>
      <trkpt lat="42.61675" lon="-0.20427">
        <ele>1572.5</ele>
        <time>2017-07-30T09:49:37Z</time>
      </trkpt>
      <trkpt lat="42.61672" lon="-0.20429">
        <ele>1572.7</ele>
        <time>2017-07-30T09:49:39Z</time>
      </trkpt>
      <trkpt lat="42.61669" lon="-0.20431">
        <ele>1572.8</ele>
        <time>2017-07-30T09:49:41Z</time>
      </trkpt>
      <trkpt lat="42.61666" lon="-0.20433">
        <ele>1573</ele>
        <time>2017-07-30T09:49:43Z</time>
      </trkpt>
      <trkpt lat="42.61663" lon="-0.20435">
        <ele>1573.1</ele>
        <time>2017-07-30T09:49:45Z</time>
      </trkpt>
      <trkpt lat="42.6166" lon="-0.20437">
        <ele>1573</ele>
        <time>2017-07-30T09:49:47Z</time>
      </trkpt>
      <trkpt lat="42.61657" lon="-0.20439">
        <ele>1572.9</ele>
        <time>2017-07-30T09:49:49Z</time>
      </trkpt>
      <trkpt lat="42.61654" lon="-0.2044">
        <ele>1572.7</ele>
        <time>2017-07-30T09:49:51Z</time>
      </trkpt>
      <trkpt lat="42.61651" lon="-0.20442">
        <ele>1572.7</ele>
        <time>2017-07-30T09:49:53Z</time>
      </trkpt>
      <trkpt lat="42.61648" lon="-0.20443">
        <ele>1572.7</ele>
        <time>2017-07-30T09:49:55Z</time>
      </trkpt>
      <trkpt lat="42.61645" lon="-0.20444">
        <ele>1572.7</ele>
        <time>2017-07-30T09:49:57Z</time>
      </trkpt>
      <trkpt lat="42.61641" lon="-0.20446">
        <ele>1572.7</ele>
        <time>2017-07-30T09:49:59Z</time>
      </trkpt>
      <trkpt lat="42.61638" lon="-0.20447">
        <ele>1572.5</ele>
        <time>2017-07-30T09:50:01Z</time>
      </trkpt>
      <trkpt lat="42.61635" lon="-0.20448">
        <ele>1572.1</ele>
        <time>2017-07-30T09:50:03Z</time>
      </trkpt>
      <trkpt lat="42.61631" lon="-0.20449">
        <ele>1571.9</ele>
        <time>2017-07-30T09:50:05Z</time>
      </trkpt>
      <trkpt lat="42.61628" lon="-0.2045">
        <ele>1572.3</ele>
        <time>2017-07-30T09:50:07Z</time>
      </trkpt>
      <trkpt lat="42.61624" lon="-0.20451">
        <ele>1572.7</ele>
        <time>2017-07-30T09:50:09Z</time>
      </trkpt>
      <trkpt lat="42.61621" lon="-0.20451">
        <ele>1572.9</ele>
        <time>2017-07-30T09:50:11Z</time>
      </trkpt>
      <trkpt lat="42.61618" lon="-0.20452">
        <ele>1573</ele>
        <time>2017-07-30T09:50:13Z</time>
      </trkpt>
      <trkpt lat="42.61614" lon="-0.20453">
        <ele>1573.5</ele>
        <time>2017-07-30T09:50:15Z</time>
      </trkpt>
      <trkpt lat="42.61611" lon="-0.20454">
        <ele>1574.4</ele>
        <time>2017-07-30T09:50:17Z</time>
      </trkpt>
      <trkpt lat="42.61608" lon="-0.20454">
        <ele>1575.4</ele>
        <time>2017-07-30T09:50:19Z</time>
      </trkpt>
      <trkpt lat="42.61604" lon="-0.20455">
        <ele>1576.3</ele>
        <time>2017-07-30T09:50:21Z</time>
      </trkpt>
      <trkpt lat="42.616" lon="-0.20456">
        <ele>1577.3</ele>
        <time>2017-07-30T09:50:23Z</time>
      </trkpt>
      <trkpt lat="42.61597" lon="-0.20457">
        <ele>1577.5</ele>
        <time>2017-07-30T09:50:25Z</time>
      </trkpt>
      <trkpt lat="42.61593" lon="-0.20458">
        <ele>1577.5</ele>
        <time>2017-07-30T09:50:27Z</time>
      </trkpt>
      <trkpt lat="42.6159" lon="-0.20459">
        <ele>1577.3</ele>
        <time>2017-07-30T09:50:29Z</time>
      </trkpt>
      <trkpt lat="42.61586" lon="-0.2046">
        <ele>1577</ele>
        <time>2017-07-30T09:50:31Z</time>
      </trkpt>
      <trkpt lat="42.61583" lon="-0.20461">
        <ele>1576.6</ele>
        <time>2017-07-30T09:50:33Z</time>
      </trkpt>
      <trkpt lat="42.61579" lon="-0.20461">
        <ele>1576.9</ele>
        <time>2017-07-30T09:50:35Z</time>
      </trkpt>
      <trkpt lat="42.61575" lon="-0.20462">
        <ele>1577.3</ele>
        <time>2017-07-30T09:50:37Z</time>
      </trkpt>
      <trkpt lat="42.61572" lon="-0.20462">
        <ele>1577.4</ele>
        <time>2017-07-30T09:50:39Z</time>
      </trkpt>
      <trkpt lat="42.61568" lon="-0.20463">
        <ele>1577.2</ele>
        <time>2017-07-30T09:50:41Z</time>
      </trkpt>
      <trkpt lat="42.61565" lon="-0.20464">
        <ele>1576.9</ele>
        <time>2017-07-30T09:50:43Z</time>
      </trkpt>
      <trkpt lat="42.61562" lon="-0.20464">
        <ele>1577</ele>
        <time>2017-07-30T09:50:45Z</time>
      </trkpt>
      <trkpt lat="42.61558" lon="-0.20465">
        <ele>1577.2</ele>
        <time>2017-07-30T09:50:47Z</time>
      </trkpt>
      <trkpt lat="42.61554" lon="-0.20465">
        <ele>1577.2</ele>
        <time>2017-07-30T09:50:49Z</time>
      </trkpt>
      <trkpt lat="42.61551" lon="-0.20466">
        <ele>1576.8</ele>
        <time>2017-07-30T09:50:51Z</time>
      </trkpt>
      <trkpt lat="42.61547" lon="-0.20466">
        <ele>1576.4</ele>
        <time>2017-07-30T09:50:53Z</time>
      </trkpt>
      <trkpt lat="42.61544" lon="-0.20467">
        <ele>1576.2</ele>
        <time>2017-07-30T09:50:55Z</time>
      </trkpt>
      <trkpt lat="42.61541" lon="-0.20467">
        <ele>1576</ele>
        <time>2017-07-30T09:50:57Z</time>
      </trkpt>
      <trkpt lat="42.61538" lon="-0.20467">
        <ele>1575.7</ele>
        <time>2017-07-30T09:50:59Z</time>
      </trkpt>
      <trkpt lat="42.61534" lon="-0.20467">
        <ele>1575.5</ele>
        <time>2017-07-30T09:51:01Z</time>
      </trkpt>
      <trkpt lat="42.61531" lon="-0.20468">
        <ele>1575.3</ele>
        <time>2017-07-30T09:51:03Z</time>
      </trkpt>
      <trkpt lat="42.61528" lon="-0.20468">
        <ele>1575.3</ele>
        <time>2017-07-30T09:51:05Z</time>
      </trkpt>
      <trkpt lat="42.61525" lon="-0.20468">
        <ele>1575.5</ele>
        <time>2017-07-30T09:51:07Z</time>
      </trkpt>
      <trkpt lat="42.61522" lon="-0.20469">
        <ele>1575.8</ele>
        <time>2017-07-30T09:51:09Z</time>
      </trkpt>
      <trkpt lat="42.61518" lon="-0.20469">
        <ele>1575.9</ele>
        <time>2017-07-30T09:51:11Z</time>
      </trkpt>
      <trkpt lat="42.61515" lon="-0.2047">
        <ele>1575.8</ele>
        <time>2017-07-30T09:51:13Z</time>
      </trkpt>
      <trkpt lat="42.61512" lon="-0.20471">
        <ele>1575.8</ele>
        <time>2017-07-30T09:51:15Z</time>
      </trkpt>
      <trkpt lat="42.61509" lon="-0.20473">
        <ele>1575.7</ele>
        <time>2017-07-30T09:51:17Z</time>
      </trkpt>
      <trkpt lat="42.61506" lon="-0.20474">
        <ele>1575.5</ele>
        <time>2017-07-30T09:51:19Z</time>
      </trkpt>
      <trkpt lat="42.61503" lon="-0.20476">
        <ele>1575.4</ele>
        <time>2017-07-30T09:51:21Z</time>
      </trkpt>
      <trkpt lat="42.615" lon="-0.20478">
        <ele>1575.4</ele>
        <time>2017-07-30T09:51:23Z</time>
      </trkpt>
      <trkpt lat="42.61497" lon="-0.20482">
        <ele>1575.5</ele>
        <time>2017-07-30T09:51:25Z</time>
      </trkpt>
      <trkpt lat="42.61494" lon="-0.20485">
        <ele>1575.7</ele>
        <time>2017-07-30T09:51:27Z</time>
      </trkpt>
      <trkpt lat="42.61491" lon="-0.20489">
        <ele>1575.9</ele>
        <time>2017-07-30T09:51:29Z</time>
      </trkpt>
      <trkpt lat="42.61489" lon="-0.20493">
        <ele>1576.2</ele>
        <time>2017-07-30T09:51:31Z</time>
      </trkpt>
      <trkpt lat="42.61487" lon="-0.20497">
        <ele>1576.5</ele>
        <time>2017-07-30T09:51:33Z</time>
      </trkpt>
      <trkpt lat="42.61484" lon="-0.20502">
        <ele>1577.3</ele>
        <time>2017-07-30T09:51:35Z</time>
      </trkpt>
      <trkpt lat="42.61481" lon="-0.20508">
        <ele>1578.6</ele>
        <time>2017-07-30T09:51:37Z</time>
      </trkpt>
      <trkpt lat="42.6148" lon="-0.20511">
        <ele>1579.2</ele>
        <time>2017-07-30T09:51:38Z</time>
      </trkpt>
      <trkpt lat="42.61477" lon="-0.20517">
        <ele>1580.2</ele>
        <time>2017-07-30T09:51:40Z</time>
      </trkpt>
      <trkpt lat="42.61475" lon="-0.20522">
        <ele>1581</ele>
        <time>2017-07-30T09:51:42Z</time>
      </trkpt>
      <trkpt lat="42.61472" lon="-0.20526">
        <ele>1581.6</ele>
        <time>2017-07-30T09:51:44Z</time>
      </trkpt>
      <trkpt lat="42.6147" lon="-0.20531">
        <ele>1582.5</ele>
        <time>2017-07-30T09:51:46Z</time>
      </trkpt>
      <trkpt lat="42.61468" lon="-0.20537">
        <ele>1583.5</ele>
        <time>2017-07-30T09:51:48Z</time>
      </trkpt>
      <trkpt lat="42.61466" lon="-0.20542">
        <ele>1583.9</ele>
        <time>2017-07-30T09:51:50Z</time>
      </trkpt>
      <trkpt lat="42.61464" lon="-0.20548">
        <ele>1584.3</ele>
        <time>2017-07-30T09:51:52Z</time>
      </trkpt>
      <trkpt lat="42.61463" lon="-0.20553">
        <ele>1584.5</ele>
        <time>2017-07-30T09:51:54Z</time>
      </trkpt>
      <trkpt lat="42.61461" lon="-0.20559">
        <ele>1584.7</ele>
        <time>2017-07-30T09:51:56Z</time>
      </trkpt>
      <trkpt lat="42.6146" lon="-0.20564">
        <ele>1585</ele>
        <time>2017-07-30T09:51:58Z</time>
      </trkpt>
      <trkpt lat="42.61458" lon="-0.2057">
        <ele>1585.2</ele>
        <time>2017-07-30T09:52:00Z</time>
      </trkpt>
      <trkpt lat="42.61456" lon="-0.20575">
        <ele>1584.6</ele>
        <time>2017-07-30T09:52:02Z</time>
      </trkpt>
      <trkpt lat="42.61453" lon="-0.2058">
        <ele>1584.1</ele>
        <time>2017-07-30T09:52:04Z</time>
      </trkpt>
      <trkpt lat="42.6145" lon="-0.20585">
        <ele>1584.3</ele>
        <time>2017-07-30T09:52:06Z</time>
      </trkpt>
      <trkpt lat="42.61447" lon="-0.2059">
        <ele>1584.6</ele>
        <time>2017-07-30T09:52:08Z</time>
      </trkpt>
      <trkpt lat="42.61445" lon="-0.20595">
        <ele>1585.1</ele>
        <time>2017-07-30T09:52:10Z</time>
      </trkpt>
      <trkpt lat="42.61444" lon="-0.20599">
        <ele>1585.4</ele>
        <time>2017-07-30T09:52:12Z</time>
      </trkpt>
      <trkpt lat="42.61443" lon="-0.20603">
        <ele>1585.6</ele>
        <time>2017-07-30T09:52:14Z</time>
      </trkpt>
      <trkpt lat="42.61441" lon="-0.20606">
        <ele>1585.8</ele>
        <time>2017-07-30T09:52:16Z</time>
      </trkpt>
      <trkpt lat="42.61438" lon="-0.20607">
        <ele>1585.9</ele>
        <time>2017-07-30T09:53:29Z</time>
      </trkpt>
      <trkpt lat="42.61435" lon="-0.2061">
        <ele>1586</ele>
        <time>2017-07-30T09:53:31Z</time>
      </trkpt>
      <trkpt lat="42.61431" lon="-0.20612">
        <ele>1586</ele>
        <time>2017-07-30T09:53:33Z</time>
      </trkpt>
      <trkpt lat="42.61428" lon="-0.20614">
        <ele>1586</ele>
        <time>2017-07-30T09:53:35Z</time>
      </trkpt>
      <trkpt lat="42.61424" lon="-0.20617">
        <ele>1586.7</ele>
        <time>2017-07-30T09:53:37Z</time>
      </trkpt>
      <trkpt lat="42.6142" lon="-0.20619">
        <ele>1587.7</ele>
        <time>2017-07-30T09:53:39Z</time>
      </trkpt>
      <trkpt lat="42.61416" lon="-0.20621">
        <ele>1588.6</ele>
        <time>2017-07-30T09:53:41Z</time>
      </trkpt>
      <trkpt lat="42.61413" lon="-0.20624">
        <ele>1590.1</ele>
        <time>2017-07-30T09:53:43Z</time>
      </trkpt>
      <trkpt lat="42.61409" lon="-0.20626">
        <ele>1591</ele>
        <time>2017-07-30T09:53:45Z</time>
      </trkpt>
      <trkpt lat="42.61406" lon="-0.20628">
        <ele>1591.8</ele>
        <time>2017-07-30T09:53:47Z</time>
      </trkpt>
      <trkpt lat="42.61403" lon="-0.20631">
        <ele>1592.5</ele>
        <time>2017-07-30T09:53:49Z</time>
      </trkpt>
      <trkpt lat="42.614" lon="-0.20634">
        <ele>1593.2</ele>
        <time>2017-07-30T09:53:51Z</time>
      </trkpt>
      <trkpt lat="42.61397" lon="-0.20637">
        <ele>1594</ele>
        <time>2017-07-30T09:53:53Z</time>
      </trkpt>
      <trkpt lat="42.61395" lon="-0.2064">
        <ele>1594.3</ele>
        <time>2017-07-30T09:53:55Z</time>
      </trkpt>
      <trkpt lat="42.61392" lon="-0.20644">
        <ele>1595.1</ele>
        <time>2017-07-30T09:53:57Z</time>
      </trkpt>
      <trkpt lat="42.6139" lon="-0.20648">
        <ele>1596</ele>
        <time>2017-07-30T09:53:59Z</time>
      </trkpt>
      <trkpt lat="42.61388" lon="-0.20651">
        <ele>1596.3</ele>
        <time>2017-07-30T09:54:01Z</time>
      </trkpt>
      <trkpt lat="42.61386" lon="-0.20655">
        <ele>1597.4</ele>
        <time>2017-07-30T09:54:03Z</time>
      </trkpt>
      <trkpt lat="42.61384" lon="-0.20658">
        <ele>1598.4</ele>
        <time>2017-07-30T09:54:05Z</time>
      </trkpt>
      <trkpt lat="42.61381" lon="-0.20661">
        <ele>1598.6</ele>
        <time>2017-07-30T09:54:07Z</time>
      </trkpt>
      <trkpt lat="42.61379" lon="-0.20665">
        <ele>1599.4</ele>
        <time>2017-07-30T09:54:09Z</time>
      </trkpt>
      <trkpt lat="42.61377" lon="-0.20668">
        <ele>1600.1</ele>
        <time>2017-07-30T09:54:11Z</time>
      </trkpt>
      <trkpt lat="42.61374" lon="-0.20672">
        <ele>1601.2</ele>
        <time>2017-07-30T09:54:13Z</time>
      </trkpt>
      <trkpt lat="42.61372" lon="-0.20675">
        <ele>1601.1</ele>
        <time>2017-07-30T09:54:15Z</time>
      </trkpt>
      <trkpt lat="42.6137" lon="-0.20679">
        <ele>1601.7</ele>
        <time>2017-07-30T09:54:17Z</time>
      </trkpt>
      <trkpt lat="42.61367" lon="-0.20682">
        <ele>1602.2</ele>
        <time>2017-07-30T09:54:19Z</time>
      </trkpt>
      <trkpt lat="42.61364" lon="-0.20687">
        <ele>1602.9</ele>
        <time>2017-07-30T09:54:21Z</time>
      </trkpt>
      <trkpt lat="42.61362" lon="-0.20691">
        <ele>1603.6</ele>
        <time>2017-07-30T09:54:23Z</time>
      </trkpt>
      <trkpt lat="42.61359" lon="-0.20695">
        <ele>1604.5</ele>
        <time>2017-07-30T09:54:25Z</time>
      </trkpt>
      <trkpt lat="42.61355" lon="-0.20698">
        <ele>1605.4</ele>
        <time>2017-07-30T09:54:27Z</time>
      </trkpt>
      <trkpt lat="42.61352" lon="-0.20702">
        <ele>1606.5</ele>
        <time>2017-07-30T09:54:29Z</time>
      </trkpt>
      <trkpt lat="42.61349" lon="-0.20706">
        <ele>1607.8</ele>
        <time>2017-07-30T09:54:31Z</time>
      </trkpt>
      <trkpt lat="42.61346" lon="-0.20709">
        <ele>1609.1</ele>
        <time>2017-07-30T09:54:33Z</time>
      </trkpt>
      <trkpt lat="42.61343" lon="-0.20713">
        <ele>1610.3</ele>
        <time>2017-07-30T09:54:35Z</time>
      </trkpt>
      <trkpt lat="42.61339" lon="-0.20715">
        <ele>1611.2</ele>
        <time>2017-07-30T09:54:37Z</time>
      </trkpt>
      <trkpt lat="42.61335" lon="-0.20718">
        <ele>1612.2</ele>
        <time>2017-07-30T09:54:39Z</time>
      </trkpt>
      <trkpt lat="42.61331" lon="-0.2072">
        <ele>1613</ele>
        <time>2017-07-30T09:54:41Z</time>
      </trkpt>
      <trkpt lat="42.61328" lon="-0.20723">
        <ele>1613.6</ele>
        <time>2017-07-30T09:54:43Z</time>
      </trkpt>
      <trkpt lat="42.61325" lon="-0.20727">
        <ele>1614.3</ele>
        <time>2017-07-30T09:54:45Z</time>
      </trkpt>
      <trkpt lat="42.61322" lon="-0.20731">
        <ele>1615</ele>
        <time>2017-07-30T09:54:47Z</time>
      </trkpt>
      <trkpt lat="42.61318" lon="-0.20735">
        <ele>1615.8</ele>
        <time>2017-07-30T09:54:49Z</time>
      </trkpt>
      <trkpt lat="42.61315" lon="-0.20738">
        <ele>1617.2</ele>
        <time>2017-07-30T09:54:51Z</time>
      </trkpt>
      <trkpt lat="42.61311" lon="-0.20742">
        <ele>1618.2</ele>
        <time>2017-07-30T09:54:53Z</time>
      </trkpt>
      <trkpt lat="42.61308" lon="-0.20746">
        <ele>1619.2</ele>
        <time>2017-07-30T09:54:55Z</time>
      </trkpt>
      <trkpt lat="42.61305" lon="-0.20749">
        <ele>1620</ele>
        <time>2017-07-30T09:54:57Z</time>
      </trkpt>
      <trkpt lat="42.61302" lon="-0.20754">
        <ele>1621.1</ele>
        <time>2017-07-30T09:54:59Z</time>
      </trkpt>
      <trkpt lat="42.61299" lon="-0.20759">
        <ele>1622.2</ele>
        <time>2017-07-30T09:55:01Z</time>
      </trkpt>
      <trkpt lat="42.61295" lon="-0.20765">
        <ele>1623.2</ele>
        <time>2017-07-30T09:55:03Z</time>
      </trkpt>
      <trkpt lat="42.61292" lon="-0.2077">
        <ele>1624.1</ele>
        <time>2017-07-30T09:55:05Z</time>
      </trkpt>
      <trkpt lat="42.61288" lon="-0.20775">
        <ele>1625</ele>
        <time>2017-07-30T09:55:07Z</time>
      </trkpt>
      <trkpt lat="42.61286" lon="-0.20778">
        <ele>1625.6</ele>
        <time>2017-07-30T09:55:08Z</time>
      </trkpt>
      <trkpt lat="42.61284" lon="-0.2078">
        <ele>1625.7</ele>
        <time>2017-07-30T09:55:09Z</time>
      </trkpt>
      <trkpt lat="42.61282" lon="-0.20783">
        <ele>1626.3</ele>
        <time>2017-07-30T09:55:10Z</time>
      </trkpt>
      <trkpt lat="42.61279" lon="-0.20785">
        <ele>1626.3</ele>
        <time>2017-07-30T09:55:11Z</time>
      </trkpt>
      <trkpt lat="42.61277" lon="-0.20787">
        <ele>1626.7</ele>
        <time>2017-07-30T09:55:12Z</time>
      </trkpt>
      <trkpt lat="42.61274" lon="-0.20789">
        <ele>1626.2</ele>
        <time>2017-07-30T09:55:13Z</time>
      </trkpt>
      <trkpt lat="42.61271" lon="-0.2079">
        <ele>1626.4</ele>
        <time>2017-07-30T09:55:14Z</time>
      </trkpt>
      <trkpt lat="42.61268" lon="-0.2079">
        <ele>1626.6</ele>
        <time>2017-07-30T09:55:15Z</time>
      </trkpt>
      <trkpt lat="42.61265" lon="-0.20789">
        <ele>1626.6</ele>
        <time>2017-07-30T09:55:16Z</time>
      </trkpt>
      <trkpt lat="42.61262" lon="-0.20787">
        <ele>1627.4</ele>
        <time>2017-07-30T09:55:17Z</time>
      </trkpt>
      <trkpt lat="42.61259" lon="-0.20785">
        <ele>1627.3</ele>
        <time>2017-07-30T09:55:18Z</time>
      </trkpt>
      <trkpt lat="42.61256" lon="-0.20782">
        <ele>1628.1</ele>
        <time>2017-07-30T09:55:19Z</time>
      </trkpt>
      <trkpt lat="42.61253" lon="-0.20779">
        <ele>1628.9</ele>
        <time>2017-07-30T09:55:20Z</time>
      </trkpt>
      <trkpt lat="42.6125" lon="-0.20776">
        <ele>1628.9</ele>
        <time>2017-07-30T09:55:21Z</time>
      </trkpt>
      <trkpt lat="42.61247" lon="-0.20772">
        <ele>1630.1</ele>
        <time>2017-07-30T09:55:22Z</time>
      </trkpt>
      <trkpt lat="42.61243" lon="-0.20768">
        <ele>1631.3</ele>
        <time>2017-07-30T09:55:23Z</time>
      </trkpt>
      <trkpt lat="42.61239" lon="-0.20764">
        <ele>1632.5</ele>
        <time>2017-07-30T09:55:24Z</time>
      </trkpt>
      <trkpt lat="42.61236" lon="-0.2076">
        <ele>1633</ele>
        <time>2017-07-30T09:55:25Z</time>
      </trkpt>
      <trkpt lat="42.61233" lon="-0.20756">
        <ele>1633.3</ele>
        <time>2017-07-30T09:55:26Z</time>
      </trkpt>
      <trkpt lat="42.61229" lon="-0.20752">
        <ele>1633.3</ele>
        <time>2017-07-30T09:55:27Z</time>
      </trkpt>
      <trkpt lat="42.61226" lon="-0.20747">
        <ele>1633.1</ele>
        <time>2017-07-30T09:55:28Z</time>
      </trkpt>
      <trkpt lat="42.61223" lon="-0.20743">
        <ele>1632.9</ele>
        <time>2017-07-30T09:55:29Z</time>
      </trkpt>
      <trkpt lat="42.61219" lon="-0.20739">
        <ele>1632.7</ele>
        <time>2017-07-30T09:55:30Z</time>
      </trkpt>
      <trkpt lat="42.61216" lon="-0.20735">
        <ele>1632.6</ele>
        <time>2017-07-30T09:55:31Z</time>
      </trkpt>
      <trkpt lat="42.61213" lon="-0.20732">
        <ele>1632.4</ele>
        <time>2017-07-30T09:55:32Z</time>
      </trkpt>
      <trkpt lat="42.61209" lon="-0.20728">
        <ele>1632.3</ele>
        <time>2017-07-30T09:55:33Z</time>
      </trkpt>
      <trkpt lat="42.61206" lon="-0.20724">
        <ele>1632.1</ele>
        <time>2017-07-30T09:55:34Z</time>
      </trkpt>
      <trkpt lat="42.61202" lon="-0.20721">
        <ele>1631.3</ele>
        <time>2017-07-30T09:55:35Z</time>
      </trkpt>
      <trkpt lat="42.61199" lon="-0.20718">
        <ele>1630.7</ele>
        <time>2017-07-30T09:55:36Z</time>
      </trkpt>
      <trkpt lat="42.61195" lon="-0.20714">
        <ele>1630.1</ele>
        <time>2017-07-30T09:55:37Z</time>
      </trkpt>
      <trkpt lat="42.61191" lon="-0.20711">
        <ele>1630.1</ele>
        <time>2017-07-30T09:55:38Z</time>
      </trkpt>
      <trkpt lat="42.61187" lon="-0.20708">
        <ele>1630.2</ele>
        <time>2017-07-30T09:55:39Z</time>
      </trkpt>
      <trkpt lat="42.61183" lon="-0.20705">
        <ele>1630.4</ele>
        <time>2017-07-30T09:55:40Z</time>
      </trkpt>
      <trkpt lat="42.6118" lon="-0.20702">
        <ele>1630.7</ele>
        <time>2017-07-30T09:55:41Z</time>
      </trkpt>
      <trkpt lat="42.61177" lon="-0.20699">
        <ele>1631.2</ele>
        <time>2017-07-30T09:55:42Z</time>
      </trkpt>
      <trkpt lat="42.61174" lon="-0.20696">
        <ele>1631.6</ele>
        <time>2017-07-30T09:55:43Z</time>
      </trkpt>
      <trkpt lat="42.61171" lon="-0.20693">
        <ele>1632</ele>
        <time>2017-07-30T09:55:44Z</time>
      </trkpt>
      <trkpt lat="42.61168" lon="-0.2069">
        <ele>1632.4</ele>
        <time>2017-07-30T09:55:45Z</time>
      </trkpt>
      <trkpt lat="42.61165" lon="-0.20688">
        <ele>1632.7</ele>
        <time>2017-07-30T09:55:46Z</time>
      </trkpt>
      <trkpt lat="42.61162" lon="-0.20687">
        <ele>1632.8</ele>
        <time>2017-07-30T09:55:47Z</time>
      </trkpt>
      <trkpt lat="42.61157" lon="-0.20685">
        <ele>1633.1</ele>
        <time>2017-07-30T09:55:49Z</time>
      </trkpt>
      <trkpt lat="42.61154" lon="-0.20684">
        <ele>1633.2</ele>
        <time>2017-07-30T09:55:50Z</time>
      </trkpt>
      <trkpt lat="42.61152" lon="-0.20683">
        <ele>1633.3</ele>
        <time>2017-07-30T09:55:51Z</time>
      </trkpt>
      <trkpt lat="42.61149" lon="-0.20682">
        <ele>1633.1</ele>
        <time>2017-07-30T09:55:52Z</time>
      </trkpt>
      <trkpt lat="42.61146" lon="-0.20682">
        <ele>1632.7</ele>
        <time>2017-07-30T09:55:53Z</time>
      </trkpt>
      <trkpt lat="42.61143" lon="-0.20682">
        <ele>1632.2</ele>
        <time>2017-07-30T09:55:54Z</time>
      </trkpt>
      <trkpt lat="42.6114" lon="-0.20682">
        <ele>1631.7</ele>
        <time>2017-07-30T09:55:55Z</time>
      </trkpt>
      <trkpt lat="42.61137" lon="-0.20682">
        <ele>1631.1</ele>
        <time>2017-07-30T09:55:56Z</time>
      </trkpt>
      <trkpt lat="42.61134" lon="-0.20682">
        <ele>1630.6</ele>
        <time>2017-07-30T09:55:57Z</time>
      </trkpt>
      <trkpt lat="42.61132" lon="-0.20681">
        <ele>1630</ele>
        <time>2017-07-30T09:55:58Z</time>
      </trkpt>
      <trkpt lat="42.61129" lon="-0.20681">
        <ele>1629.4</ele>
        <time>2017-07-30T09:55:59Z</time>
      </trkpt>
      <trkpt lat="42.61126" lon="-0.20681">
        <ele>1628.8</ele>
        <time>2017-07-30T09:56:00Z</time>
      </trkpt>
      <trkpt lat="42.61121" lon="-0.20681">
        <ele>1627.8</ele>
        <time>2017-07-30T09:56:02Z</time>
      </trkpt>
      <trkpt lat="42.61116" lon="-0.2068">
        <ele>1626.8</ele>
        <time>2017-07-30T09:56:04Z</time>
      </trkpt>
      <trkpt lat="42.61111" lon="-0.2068">
        <ele>1626.1</ele>
        <time>2017-07-30T09:56:06Z</time>
      </trkpt>
      <trkpt lat="42.61106" lon="-0.2068">
        <ele>1625.6</ele>
        <time>2017-07-30T09:56:08Z</time>
      </trkpt>
      <trkpt lat="42.61101" lon="-0.2068">
        <ele>1625.4</ele>
        <time>2017-07-30T09:56:10Z</time>
      </trkpt>
      <trkpt lat="42.61096" lon="-0.2068">
        <ele>1625.8</ele>
        <time>2017-07-30T09:56:12Z</time>
      </trkpt>
      <trkpt lat="42.6109" lon="-0.2068">
        <ele>1626.8</ele>
        <time>2017-07-30T09:56:14Z</time>
      </trkpt>
      <trkpt lat="42.61085" lon="-0.20682">
        <ele>1628.1</ele>
        <time>2017-07-30T09:56:16Z</time>
      </trkpt>
      <trkpt lat="42.6108" lon="-0.20683">
        <ele>1629.5</ele>
        <time>2017-07-30T09:56:18Z</time>
      </trkpt>
      <trkpt lat="42.61075" lon="-0.20684">
        <ele>1631</ele>
        <time>2017-07-30T09:56:20Z</time>
      </trkpt>
      <trkpt lat="42.6107" lon="-0.20686">
        <ele>1632.3</ele>
        <time>2017-07-30T09:56:22Z</time>
      </trkpt>
      <trkpt lat="42.61065" lon="-0.20687">
        <ele>1633.5</ele>
        <time>2017-07-30T09:56:24Z</time>
      </trkpt>
      <trkpt lat="42.61061" lon="-0.20687">
        <ele>1634.5</ele>
        <time>2017-07-30T09:56:26Z</time>
      </trkpt>
      <trkpt lat="42.61058" lon="-0.20687">
        <ele>1635.2</ele>
        <time>2017-07-30T09:56:28Z</time>
      </trkpt>
      <trkpt lat="42.61055" lon="-0.20686">
        <ele>1635.9</ele>
        <time>2017-07-30T09:56:30Z</time>
      </trkpt>
      <trkpt lat="42.61051" lon="-0.20685">
        <ele>1637.1</ele>
        <time>2017-07-30T09:56:32Z</time>
      </trkpt>
      <trkpt lat="42.61049" lon="-0.20684">
        <ele>1638.4</ele>
        <time>2017-07-30T09:56:34Z</time>
      </trkpt>
      <trkpt lat="42.61046" lon="-0.20681">
        <ele>1639.9</ele>
        <time>2017-07-30T09:56:36Z</time>
      </trkpt>
      <trkpt lat="42.61044" lon="-0.20678">
        <ele>1640.6</ele>
        <time>2017-07-30T09:56:38Z</time>
      </trkpt>
      <trkpt lat="42.61041" lon="-0.20677">
        <ele>1641.2</ele>
        <time>2017-07-30T09:56:40Z</time>
      </trkpt>
      <trkpt lat="42.61038" lon="-0.20675">
        <ele>1641.8</ele>
        <time>2017-07-30T09:56:42Z</time>
      </trkpt>
      <trkpt lat="42.61035" lon="-0.20674">
        <ele>1642.2</ele>
        <time>2017-07-30T09:56:44Z</time>
      </trkpt>
      <trkpt lat="42.61031" lon="-0.20673">
        <ele>1642.6</ele>
        <time>2017-07-30T09:56:46Z</time>
      </trkpt>
      <trkpt lat="42.61028" lon="-0.20671">
        <ele>1642.8</ele>
        <time>2017-07-30T09:56:48Z</time>
      </trkpt>
      <trkpt lat="42.61025" lon="-0.20669">
        <ele>1642.9</ele>
        <time>2017-07-30T09:56:50Z</time>
      </trkpt>
      <trkpt lat="42.61021" lon="-0.20667">
        <ele>1643</ele>
        <time>2017-07-30T09:56:52Z</time>
      </trkpt>
      <trkpt lat="42.61018" lon="-0.20665">
        <ele>1643.3</ele>
        <time>2017-07-30T09:56:54Z</time>
      </trkpt>
      <trkpt lat="42.61015" lon="-0.20663">
        <ele>1643.5</ele>
        <time>2017-07-30T09:56:56Z</time>
      </trkpt>
      <trkpt lat="42.61012" lon="-0.20662">
        <ele>1643.8</ele>
        <time>2017-07-30T09:56:58Z</time>
      </trkpt>
      <trkpt lat="42.61009" lon="-0.2066">
        <ele>1644.2</ele>
        <time>2017-07-30T09:57:00Z</time>
      </trkpt>
      <trkpt lat="42.61006" lon="-0.20659">
        <ele>1644.6</ele>
        <time>2017-07-30T09:57:02Z</time>
      </trkpt>
      <trkpt lat="42.61002" lon="-0.20657">
        <ele>1645.3</ele>
        <time>2017-07-30T09:57:04Z</time>
      </trkpt>
      <trkpt lat="42.60999" lon="-0.20654">
        <ele>1646.1</ele>
        <time>2017-07-30T09:57:06Z</time>
      </trkpt>
      <trkpt lat="42.60996" lon="-0.20652">
        <ele>1646.7</ele>
        <time>2017-07-30T09:57:08Z</time>
      </trkpt>
      <trkpt lat="42.60993" lon="-0.20649">
        <ele>1647.1</ele>
        <time>2017-07-30T09:57:10Z</time>
      </trkpt>
      <trkpt lat="42.6099" lon="-0.20646">
        <ele>1647.6</ele>
        <time>2017-07-30T09:57:12Z</time>
      </trkpt>
      <trkpt lat="42.60986" lon="-0.20644">
        <ele>1648.3</ele>
        <time>2017-07-30T09:57:14Z</time>
      </trkpt>
      <trkpt lat="42.60982" lon="-0.20641">
        <ele>1649</ele>
        <time>2017-07-30T09:57:16Z</time>
      </trkpt>
      <trkpt lat="42.60979" lon="-0.20639">
        <ele>1649.1</ele>
        <time>2017-07-30T09:57:18Z</time>
      </trkpt>
      <trkpt lat="42.60975" lon="-0.20638">
        <ele>1649.3</ele>
        <time>2017-07-30T09:57:20Z</time>
      </trkpt>
      <trkpt lat="42.6097" lon="-0.20639">
        <ele>1649.2</ele>
        <time>2017-07-30T09:57:22Z</time>
      </trkpt>
      <trkpt lat="42.60965" lon="-0.2064">
        <ele>1649.1</ele>
        <time>2017-07-30T09:57:24Z</time>
      </trkpt>
      <trkpt lat="42.6096" lon="-0.20641">
        <ele>1648.7</ele>
        <time>2017-07-30T09:57:26Z</time>
      </trkpt>
      <trkpt lat="42.60956" lon="-0.20642">
        <ele>1648</ele>
        <time>2017-07-30T09:57:28Z</time>
      </trkpt>
      <trkpt lat="42.60951" lon="-0.20643">
        <ele>1647</ele>
        <time>2017-07-30T09:57:30Z</time>
      </trkpt>
      <trkpt lat="42.60946" lon="-0.20643">
        <ele>1645.8</ele>
        <time>2017-07-30T09:57:32Z</time>
      </trkpt>
      <trkpt lat="42.60942" lon="-0.20642">
        <ele>1644.7</ele>
        <time>2017-07-30T09:57:34Z</time>
      </trkpt>
      <trkpt lat="42.60937" lon="-0.20642">
        <ele>1644</ele>
        <time>2017-07-30T09:57:36Z</time>
      </trkpt>
      <trkpt lat="42.60933" lon="-0.20642">
        <ele>1643.5</ele>
        <time>2017-07-30T09:57:38Z</time>
      </trkpt>
      <trkpt lat="42.60928" lon="-0.20643">
        <ele>1643.2</ele>
        <time>2017-07-30T09:57:40Z</time>
      </trkpt>
      <trkpt lat="42.60923" lon="-0.20644">
        <ele>1643.1</ele>
        <time>2017-07-30T09:57:42Z</time>
      </trkpt>
      <trkpt lat="42.60919" lon="-0.20645">
        <ele>1643.5</ele>
        <time>2017-07-30T09:57:44Z</time>
      </trkpt>
      <trkpt lat="42.60915" lon="-0.20646">
        <ele>1643.9</ele>
        <time>2017-07-30T09:57:46Z</time>
      </trkpt>
      <trkpt lat="42.60912" lon="-0.20647">
        <ele>1644.4</ele>
        <time>2017-07-30T09:57:48Z</time>
      </trkpt>
      <trkpt lat="42.60909" lon="-0.20648">
        <ele>1644.8</ele>
        <time>2017-07-30T09:57:50Z</time>
      </trkpt>
      <trkpt lat="42.60906" lon="-0.20649">
        <ele>1645.3</ele>
        <time>2017-07-30T09:57:52Z</time>
      </trkpt>
      <trkpt lat="42.60902" lon="-0.20649">
        <ele>1646.6</ele>
        <time>2017-07-30T09:57:55Z</time>
      </trkpt>
      <trkpt lat="42.60898" lon="-0.20649">
        <ele>1647.7</ele>
        <time>2017-07-30T09:57:58Z</time>
      </trkpt>
      <trkpt lat="42.60895" lon="-0.20648">
        <ele>1648.2</ele>
        <time>2017-07-30T09:58:01Z</time>
      </trkpt>
      <trkpt lat="42.60891" lon="-0.20647">
        <ele>1648.7</ele>
        <time>2017-07-30T09:58:04Z</time>
      </trkpt>
      <trkpt lat="42.60887" lon="-0.20645">
        <ele>1650.3</ele>
        <time>2017-07-30T09:58:07Z</time>
      </trkpt>
      <trkpt lat="42.60883" lon="-0.20644">
        <ele>1652</ele>
        <time>2017-07-30T09:58:10Z</time>
      </trkpt>
      <trkpt lat="42.60879" lon="-0.20642">
        <ele>1653.1</ele>
        <time>2017-07-30T09:58:13Z</time>
      </trkpt>
      <trkpt lat="42.60877" lon="-0.2064">
        <ele>1653.7</ele>
        <time>2017-07-30T09:58:15Z</time>
      </trkpt>
      <trkpt lat="42.60875" lon="-0.20638">
        <ele>1654.2</ele>
        <time>2017-07-30T09:58:17Z</time>
      </trkpt>
      <trkpt lat="42.60873" lon="-0.20635">
        <ele>1654.6</ele>
        <time>2017-07-30T09:58:19Z</time>
      </trkpt>
      <trkpt lat="42.60871" lon="-0.20632">
        <ele>1655</ele>
        <time>2017-07-30T09:58:21Z</time>
      </trkpt>
      <trkpt lat="42.60868" lon="-0.2063">
        <ele>1655.4</ele>
        <time>2017-07-30T09:58:23Z</time>
      </trkpt>
      <trkpt lat="42.60867" lon="-0.20626">
        <ele>1655.7</ele>
        <time>2017-07-30T09:58:25Z</time>
      </trkpt>
      <trkpt lat="42.60865" lon="-0.20623">
        <ele>1656</ele>
        <time>2017-07-30T09:58:27Z</time>
      </trkpt>
      <trkpt lat="42.60863" lon="-0.2062">
        <ele>1656.3</ele>
        <time>2017-07-30T09:58:29Z</time>
      </trkpt>
      <trkpt lat="42.6086" lon="-0.20618">
        <ele>1656.5</ele>
        <time>2017-07-30T09:58:31Z</time>
      </trkpt>
      <trkpt lat="42.60858" lon="-0.20616">
        <ele>1656.6</ele>
        <time>2017-07-30T09:58:33Z</time>
      </trkpt>
      <trkpt lat="42.60854" lon="-0.20614">
        <ele>1656.9</ele>
        <time>2017-07-30T09:58:36Z</time>
      </trkpt>
      <trkpt lat="42.60851" lon="-0.20614">
        <ele>1657.3</ele>
        <time>2017-07-30T09:58:38Z</time>
      </trkpt>
      <trkpt lat="42.60849" lon="-0.20614">
        <ele>1657.6</ele>
        <time>2017-07-30T09:58:40Z</time>
      </trkpt>
      <trkpt lat="42.60845" lon="-0.20615">
        <ele>1658.3</ele>
        <time>2017-07-30T09:58:43Z</time>
      </trkpt>
      <trkpt lat="42.60841" lon="-0.20617">
        <ele>1659.3</ele>
        <time>2017-07-30T09:58:46Z</time>
      </trkpt>
      <trkpt lat="42.60838" lon="-0.20618">
        <ele>1660</ele>
        <time>2017-07-30T09:58:49Z</time>
      </trkpt>
      <trkpt lat="42.60834" lon="-0.20619">
        <ele>1660.6</ele>
        <time>2017-07-30T09:58:52Z</time>
      </trkpt>
      <trkpt lat="42.6083" lon="-0.2062">
        <ele>1661.2</ele>
        <time>2017-07-30T09:58:55Z</time>
      </trkpt>
      <trkpt lat="42.60827" lon="-0.20622">
        <ele>1662</ele>
        <time>2017-07-30T09:58:58Z</time>
      </trkpt>
      <trkpt lat="42.60823" lon="-0.20622">
        <ele>1662.9</ele>
        <time>2017-07-30T09:59:01Z</time>
      </trkpt>
      <trkpt lat="42.6082" lon="-0.20622">
        <ele>1663.5</ele>
        <time>2017-07-30T09:59:04Z</time>
      </trkpt>
      <trkpt lat="42.60816" lon="-0.20623">
        <ele>1664.2</ele>
        <time>2017-07-30T09:59:07Z</time>
      </trkpt>
      <trkpt lat="42.60812" lon="-0.20624">
        <ele>1665</ele>
        <time>2017-07-30T09:59:10Z</time>
      </trkpt>
      <trkpt lat="42.60809" lon="-0.20625">
        <ele>1665.7</ele>
        <time>2017-07-30T09:59:13Z</time>
      </trkpt>
      <trkpt lat="42.60805" lon="-0.20625">
        <ele>1666.5</ele>
        <time>2017-07-30T09:59:16Z</time>
      </trkpt>
      <trkpt lat="42.60801" lon="-0.20625">
        <ele>1667.2</ele>
        <time>2017-07-30T09:59:19Z</time>
      </trkpt>
      <trkpt lat="42.60798" lon="-0.20624">
        <ele>1668</ele>
        <time>2017-07-30T09:59:22Z</time>
      </trkpt>
      <trkpt lat="42.60794" lon="-0.20623">
        <ele>1668.8</ele>
        <time>2017-07-30T09:59:25Z</time>
      </trkpt>
      <trkpt lat="42.60791" lon="-0.20623">
        <ele>1669.6</ele>
        <time>2017-07-30T09:59:28Z</time>
      </trkpt>
      <trkpt lat="42.60787" lon="-0.20624">
        <ele>1670.1</ele>
        <time>2017-07-30T09:59:31Z</time>
      </trkpt>
      <trkpt lat="42.60784" lon="-0.20625">
        <ele>1670.5</ele>
        <time>2017-07-30T09:59:34Z</time>
      </trkpt>
      <trkpt lat="42.60781" lon="-0.20624">
        <ele>1671</ele>
        <time>2017-07-30T09:59:37Z</time>
      </trkpt>
      <trkpt lat="42.60778" lon="-0.20623">
        <ele>1671.3</ele>
        <time>2017-07-30T09:59:40Z</time>
      </trkpt>
      <trkpt lat="42.60774" lon="-0.20621">
        <ele>1671.7</ele>
        <time>2017-07-30T09:59:43Z</time>
      </trkpt>
      <trkpt lat="42.60771" lon="-0.20619">
        <ele>1672.4</ele>
        <time>2017-07-30T09:59:46Z</time>
      </trkpt>
      <trkpt lat="42.60769" lon="-0.20616">
        <ele>1672.9</ele>
        <time>2017-07-30T09:59:48Z</time>
      </trkpt>
      <trkpt lat="42.60766" lon="-0.20615">
        <ele>1673.4</ele>
        <time>2017-07-30T09:59:50Z</time>
      </trkpt>
      <trkpt lat="42.60764" lon="-0.20613">
        <ele>1673.7</ele>
        <time>2017-07-30T09:59:52Z</time>
      </trkpt>
      <trkpt lat="42.60761" lon="-0.20612">
        <ele>1674</ele>
        <time>2017-07-30T09:59:54Z</time>
      </trkpt>
      <trkpt lat="42.60758" lon="-0.20611">
        <ele>1674.4</ele>
        <time>2017-07-30T09:59:56Z</time>
      </trkpt>
      <trkpt lat="42.60756" lon="-0.20609">
        <ele>1674.6</ele>
        <time>2017-07-30T09:59:58Z</time>
      </trkpt>
      <trkpt lat="42.60753" lon="-0.20607">
        <ele>1674.7</ele>
        <time>2017-07-30T10:00:00Z</time>
      </trkpt>
      <trkpt lat="42.6075" lon="-0.20605">
        <ele>1674.9</ele>
        <time>2017-07-30T10:00:02Z</time>
      </trkpt>
      <trkpt lat="42.60747" lon="-0.20603">
        <ele>1674.9</ele>
        <time>2017-07-30T10:00:04Z</time>
      </trkpt>
      <trkpt lat="42.60744" lon="-0.20602">
        <ele>1675</ele>
        <time>2017-07-30T10:00:06Z</time>
      </trkpt>
      <trkpt lat="42.60742" lon="-0.20601">
        <ele>1675.1</ele>
        <time>2017-07-30T10:00:08Z</time>
      </trkpt>
      <trkpt lat="42.60739" lon="-0.20599">
        <ele>1675.3</ele>
        <time>2017-07-30T10:00:10Z</time>
      </trkpt>
      <trkpt lat="42.60736" lon="-0.20598">
        <ele>1675.6</ele>
        <time>2017-07-30T10:00:12Z</time>
      </trkpt>
      <trkpt lat="42.60734" lon="-0.20596">
        <ele>1675.8</ele>
        <time>2017-07-30T10:00:14Z</time>
      </trkpt>
      <trkpt lat="42.60731" lon="-0.20595">
        <ele>1676.3</ele>
        <time>2017-07-30T10:00:16Z</time>
      </trkpt>
      <trkpt lat="42.60728" lon="-0.20594">
        <ele>1676.9</ele>
        <time>2017-07-30T10:00:18Z</time>
      </trkpt>
      <trkpt lat="42.60724" lon="-0.20593">
        <ele>1677.6</ele>
        <time>2017-07-30T10:00:21Z</time>
      </trkpt>
      <trkpt lat="42.60722" lon="-0.20592">
        <ele>1677.7</ele>
        <time>2017-07-30T10:00:23Z</time>
      </trkpt>
      <trkpt lat="42.60718" lon="-0.2059">
        <ele>1677.9</ele>
        <time>2017-07-30T10:00:26Z</time>
      </trkpt>
      <trkpt lat="42.60715" lon="-0.20589">
        <ele>1678</ele>
        <time>2017-07-30T10:00:28Z</time>
      </trkpt>
      <trkpt lat="42.60712" lon="-0.20588">
        <ele>1678.2</ele>
        <time>2017-07-30T10:00:31Z</time>
      </trkpt>
      <trkpt lat="42.60708" lon="-0.20587">
        <ele>1678.4</ele>
        <time>2017-07-30T10:00:34Z</time>
      </trkpt>
      <trkpt lat="42.60704" lon="-0.20586">
        <ele>1678.8</ele>
        <time>2017-07-30T10:00:37Z</time>
      </trkpt>
      <trkpt lat="42.607" lon="-0.20586">
        <ele>1679.2</ele>
        <time>2017-07-30T10:00:40Z</time>
      </trkpt>
      <trkpt lat="42.60697" lon="-0.20585">
        <ele>1679.8</ele>
        <time>2017-07-30T10:00:42Z</time>
      </trkpt>
      <trkpt lat="42.60694" lon="-0.20584">
        <ele>1680.6</ele>
        <time>2017-07-30T10:00:45Z</time>
      </trkpt>
      <trkpt lat="42.6069" lon="-0.20584">
        <ele>1681.5</ele>
        <time>2017-07-30T10:00:48Z</time>
      </trkpt>
      <trkpt lat="42.60687" lon="-0.20583">
        <ele>1682.2</ele>
        <time>2017-07-30T10:00:50Z</time>
      </trkpt>
      <trkpt lat="42.60684" lon="-0.20582">
        <ele>1683</ele>
        <time>2017-07-30T10:00:52Z</time>
      </trkpt>
      <trkpt lat="42.60681" lon="-0.20582">
        <ele>1684.3</ele>
        <time>2017-07-30T10:00:54Z</time>
      </trkpt>
      <trkpt lat="42.60678" lon="-0.20581">
        <ele>1685.7</ele>
        <time>2017-07-30T10:00:56Z</time>
      </trkpt>
      <trkpt lat="42.60676" lon="-0.2058">
        <ele>1686.8</ele>
        <time>2017-07-30T10:00:58Z</time>
      </trkpt>
      <trkpt lat="42.60672" lon="-0.2058">
        <ele>1687.7</ele>
        <time>2017-07-30T10:01:01Z</time>
      </trkpt>
      <trkpt lat="42.60668" lon="-0.20578">
        <ele>1688.7</ele>
        <time>2017-07-30T10:01:04Z</time>
      </trkpt>
      <trkpt lat="42.60666" lon="-0.20576">
        <ele>1689.1</ele>
        <time>2017-07-30T10:01:06Z</time>
      </trkpt>
      <trkpt lat="42.60663" lon="-0.20575">
        <ele>1689.5</ele>
        <time>2017-07-30T10:01:08Z</time>
      </trkpt>
      <trkpt lat="42.6066" lon="-0.20574">
        <ele>1689.8</ele>
        <time>2017-07-30T10:01:10Z</time>
      </trkpt>
      <trkpt lat="42.60657" lon="-0.20572">
        <ele>1689.7</ele>
        <time>2017-07-30T10:01:13Z</time>
      </trkpt>
      <trkpt lat="42.60653" lon="-0.2057">
        <ele>1689.6</ele>
        <time>2017-07-30T10:01:16Z</time>
      </trkpt>
      <trkpt lat="42.6065" lon="-0.20568">
        <ele>1689.5</ele>
        <time>2017-07-30T10:01:19Z</time>
      </trkpt>
      <trkpt lat="42.60646" lon="-0.20567">
        <ele>1689.2</ele>
        <time>2017-07-30T10:01:22Z</time>
      </trkpt>
      <trkpt lat="42.60642" lon="-0.20566">
        <ele>1689.1</ele>
        <time>2017-07-30T10:01:25Z</time>
      </trkpt>
      <trkpt lat="42.60639" lon="-0.20565">
        <ele>1689</ele>
        <time>2017-07-30T10:01:27Z</time>
      </trkpt>
      <trkpt lat="42.60636" lon="-0.20564">
        <ele>1688.9</ele>
        <time>2017-07-30T10:01:29Z</time>
      </trkpt>
      <trkpt lat="42.60632" lon="-0.20563">
        <ele>1689.2</ele>
        <time>2017-07-30T10:01:32Z</time>
      </trkpt>
      <trkpt lat="42.60629" lon="-0.20562">
        <ele>1689.7</ele>
        <time>2017-07-30T10:01:35Z</time>
      </trkpt>
      <trkpt lat="42.60625" lon="-0.20561">
        <ele>1690.6</ele>
        <time>2017-07-30T10:01:38Z</time>
      </trkpt>
      <trkpt lat="42.60621" lon="-0.2056">
        <ele>1691.7</ele>
        <time>2017-07-30T10:01:41Z</time>
      </trkpt>
      <trkpt lat="42.60618" lon="-0.20558">
        <ele>1692.8</ele>
        <time>2017-07-30T10:01:44Z</time>
      </trkpt>
      <trkpt lat="42.60614" lon="-0.20558">
        <ele>1693.6</ele>
        <time>2017-07-30T10:01:47Z</time>
      </trkpt>
      <trkpt lat="42.60611" lon="-0.20557">
        <ele>1694.4</ele>
        <time>2017-07-30T10:01:50Z</time>
      </trkpt>
      <trkpt lat="42.60608" lon="-0.20555">
        <ele>1695.5</ele>
        <time>2017-07-30T10:01:53Z</time>
      </trkpt>
      <trkpt lat="42.60604" lon="-0.20554">
        <ele>1696.9</ele>
        <time>2017-07-30T10:01:56Z</time>
      </trkpt>
      <trkpt lat="42.60601" lon="-0.20554">
        <ele>1697.9</ele>
        <time>2017-07-30T10:01:59Z</time>
      </trkpt>
      <trkpt lat="42.60599" lon="-0.20552">
        <ele>1698.7</ele>
        <time>2017-07-30T10:02:02Z</time>
      </trkpt>
      <trkpt lat="42.60596" lon="-0.20553">
        <ele>1699.5</ele>
        <time>2017-07-30T10:02:05Z</time>
      </trkpt>
      <trkpt lat="42.60593" lon="-0.20553">
        <ele>1700.6</ele>
        <time>2017-07-30T10:02:08Z</time>
      </trkpt>
      <trkpt lat="42.60589" lon="-0.20553">
        <ele>1702.3</ele>
        <time>2017-07-30T10:02:11Z</time>
      </trkpt>
      <trkpt lat="42.60587" lon="-0.20554">
        <ele>1703.9</ele>
        <time>2017-07-30T10:02:14Z</time>
      </trkpt>
      <trkpt lat="42.60584" lon="-0.20556">
        <ele>1705.3</ele>
        <time>2017-07-30T10:02:17Z</time>
      </trkpt>
      <trkpt lat="42.6058" lon="-0.20556">
        <ele>1706.7</ele>
        <time>2017-07-30T10:02:20Z</time>
      </trkpt>
      <trkpt lat="42.60577" lon="-0.20556">
        <ele>1707.9</ele>
        <time>2017-07-30T10:02:23Z</time>
      </trkpt>
      <trkpt lat="42.60574" lon="-0.20557">
        <ele>1709</ele>
        <time>2017-07-30T10:02:26Z</time>
      </trkpt>
      <trkpt lat="42.60571" lon="-0.20558">
        <ele>1709.9</ele>
        <time>2017-07-30T10:02:29Z</time>
      </trkpt>
      <trkpt lat="42.60568" lon="-0.20559">
        <ele>1710.9</ele>
        <time>2017-07-30T10:02:32Z</time>
      </trkpt>
      <trkpt lat="42.60565" lon="-0.20559">
        <ele>1712.6</ele>
        <time>2017-07-30T10:02:35Z</time>
      </trkpt>
      <trkpt lat="42.60562" lon="-0.2056">
        <ele>1714.2</ele>
        <time>2017-07-30T10:02:38Z</time>
      </trkpt>
      <trkpt lat="42.6056" lon="-0.20562">
        <ele>1715.8</ele>
        <time>2017-07-30T10:02:41Z</time>
      </trkpt>
      <trkpt lat="42.60557" lon="-0.20564">
        <ele>1715.7</ele>
        <time>2017-07-30T10:02:44Z</time>
      </trkpt>
      <trkpt lat="42.60554" lon="-0.20566">
        <ele>1715.5</ele>
        <time>2017-07-30T10:02:47Z</time>
      </trkpt>
      <trkpt lat="42.60552" lon="-0.20569">
        <ele>1716.3</ele>
        <time>2017-07-30T10:02:50Z</time>
      </trkpt>
      <trkpt lat="42.60549" lon="-0.20571">
        <ele>1715.9</ele>
        <time>2017-07-30T10:02:53Z</time>
      </trkpt>
      <trkpt lat="42.60547" lon="-0.20573">
        <ele>1716.8</ele>
        <time>2017-07-30T10:02:56Z</time>
      </trkpt>
      <trkpt lat="42.60544" lon="-0.20574">
        <ele>1716.4</ele>
        <time>2017-07-30T10:02:59Z</time>
      </trkpt>
      <trkpt lat="42.60541" lon="-0.20574">
        <ele>1717.4</ele>
        <time>2017-07-30T10:03:02Z</time>
      </trkpt>
      <trkpt lat="42.60538" lon="-0.20571">
        <ele>1718.8</ele>
        <time>2017-07-30T10:03:05Z</time>
      </trkpt>
      <trkpt lat="42.60536" lon="-0.20568">
        <ele>1721.2</ele>
        <time>2017-07-30T10:03:08Z</time>
      </trkpt>
      <trkpt lat="42.60535" lon="-0.20564">
        <ele>1722.3</ele>
        <time>2017-07-30T10:03:11Z</time>
      </trkpt>
      <trkpt lat="42.60535" lon="-0.20559">
        <ele>1724.3</ele>
        <time>2017-07-30T10:03:14Z</time>
      </trkpt>
      <trkpt lat="42.60535" lon="-0.20554">
        <ele>1725.1</ele>
        <time>2017-07-30T10:03:17Z</time>
      </trkpt>
      <trkpt lat="42.60534" lon="-0.20549">
        <ele>1725.8</ele>
        <time>2017-07-30T10:03:20Z</time>
      </trkpt>
      <trkpt lat="42.60534" lon="-0.20544">
        <ele>1726.5</ele>
        <time>2017-07-30T10:03:23Z</time>
      </trkpt>
      <trkpt lat="42.60534" lon="-0.2054">
        <ele>1727.2</ele>
        <time>2017-07-30T10:03:26Z</time>
      </trkpt>
      <trkpt lat="42.60533" lon="-0.20535">
        <ele>1727.9</ele>
        <time>2017-07-30T10:03:29Z</time>
      </trkpt>
      <trkpt lat="42.60533" lon="-0.20531">
        <ele>1728.2</ele>
        <time>2017-07-30T10:03:32Z</time>
      </trkpt>
      <trkpt lat="42.60531" lon="-0.20527">
        <ele>1728.6</ele>
        <time>2017-07-30T10:03:35Z</time>
      </trkpt>
      <trkpt lat="42.6053" lon="-0.20523">
        <ele>1728.9</ele>
        <time>2017-07-30T10:03:38Z</time>
      </trkpt>
      <trkpt lat="42.60529" lon="-0.20518">
        <ele>1729.2</ele>
        <time>2017-07-30T10:03:41Z</time>
      </trkpt>
      <trkpt lat="42.60526" lon="-0.20515">
        <ele>1729.6</ele>
        <time>2017-07-30T10:03:44Z</time>
      </trkpt>
      <trkpt lat="42.60523" lon="-0.20511">
        <ele>1729.9</ele>
        <time>2017-07-30T10:03:47Z</time>
      </trkpt>
      <trkpt lat="42.60521" lon="-0.20508">
        <ele>1730.5</ele>
        <time>2017-07-30T10:03:50Z</time>
      </trkpt>
      <trkpt lat="42.60519" lon="-0.20504">
        <ele>1731.2</ele>
        <time>2017-07-30T10:03:53Z</time>
      </trkpt>
      <trkpt lat="42.60516" lon="-0.20501">
        <ele>1731.7</ele>
        <time>2017-07-30T10:03:56Z</time>
      </trkpt>
      <trkpt lat="42.60514" lon="-0.20498">
        <ele>1731.9</ele>
        <time>2017-07-30T10:03:59Z</time>
      </trkpt>
      <trkpt lat="42.60511" lon="-0.20494">
        <ele>1732.2</ele>
        <time>2017-07-30T10:04:02Z</time>
      </trkpt>
      <trkpt lat="42.60509" lon="-0.20491">
        <ele>1732.6</ele>
        <time>2017-07-30T10:04:05Z</time>
      </trkpt>
      <trkpt lat="42.60506" lon="-0.20488">
        <ele>1733.1</ele>
        <time>2017-07-30T10:04:08Z</time>
      </trkpt>
      <trkpt lat="42.60504" lon="-0.20485">
        <ele>1733.4</ele>
        <time>2017-07-30T10:04:10Z</time>
      </trkpt>
      <trkpt lat="42.60502" lon="-0.20482">
        <ele>1734</ele>
        <time>2017-07-30T10:04:12Z</time>
      </trkpt>
      <trkpt lat="42.60501" lon="-0.20477">
        <ele>1735.1</ele>
        <time>2017-07-30T10:04:15Z</time>
      </trkpt>
      <trkpt lat="42.605" lon="-0.20474">
        <ele>1735.9</ele>
        <time>2017-07-30T10:04:17Z</time>
      </trkpt>
      <trkpt lat="42.60499" lon="-0.2047">
        <ele>1736.8</ele>
        <time>2017-07-30T10:04:19Z</time>
      </trkpt>
      <trkpt lat="42.60498" lon="-0.20467">
        <ele>1737.6</ele>
        <time>2017-07-30T10:04:21Z</time>
      </trkpt>
      <trkpt lat="42.60497" lon="-0.20463">
        <ele>1738.4</ele>
        <time>2017-07-30T10:04:23Z</time>
      </trkpt>
      <trkpt lat="42.60496" lon="-0.2046">
        <ele>1738</ele>
        <time>2017-07-30T10:04:25Z</time>
      </trkpt>
      <trkpt lat="42.60495" lon="-0.20456">
        <ele>1737.6</ele>
        <time>2017-07-30T10:04:27Z</time>
      </trkpt>
      <trkpt lat="42.60493" lon="-0.20453">
        <ele>1738.8</ele>
        <time>2017-07-30T10:04:29Z</time>
      </trkpt>
      <trkpt lat="42.60491" lon="-0.20449">
        <ele>1738.3</ele>
        <time>2017-07-30T10:04:32Z</time>
      </trkpt>
      <trkpt lat="42.60489" lon="-0.20445">
        <ele>1739.4</ele>
        <time>2017-07-30T10:04:35Z</time>
      </trkpt>
      <trkpt lat="42.60486" lon="-0.20441">
        <ele>1741.1</ele>
        <time>2017-07-30T10:04:38Z</time>
      </trkpt>
      <trkpt lat="42.60483" lon="-0.20438">
        <ele>1741.8</ele>
        <time>2017-07-30T10:04:41Z</time>
      </trkpt>
      <trkpt lat="42.60481" lon="-0.20435">
        <ele>1742.2</ele>
        <time>2017-07-30T10:04:43Z</time>
      </trkpt>
      <trkpt lat="42.60479" lon="-0.20433">
        <ele>1742.2</ele>
        <time>2017-07-30T10:04:45Z</time>
      </trkpt>
      <trkpt lat="42.60475" lon="-0.20432">
        <ele>1743.5</ele>
        <time>2017-07-30T10:04:48Z</time>
      </trkpt>
      <trkpt lat="42.60472" lon="-0.20431">
        <ele>1743.5</ele>
        <time>2017-07-30T10:04:50Z</time>
      </trkpt>
      <trkpt lat="42.60469" lon="-0.2043">
        <ele>1744.5</ele>
        <time>2017-07-30T10:04:52Z</time>
      </trkpt>
      <trkpt lat="42.60467" lon="-0.20428">
        <ele>1745.5</ele>
        <time>2017-07-30T10:04:54Z</time>
      </trkpt>
      <trkpt lat="42.60464" lon="-0.20428">
        <ele>1745.8</ele>
        <time>2017-07-30T10:04:56Z</time>
      </trkpt>
      <trkpt lat="42.60461" lon="-0.20427">
        <ele>1747.1</ele>
        <time>2017-07-30T10:04:58Z</time>
      </trkpt>
      <trkpt lat="42.60457" lon="-0.20426">
        <ele>1748.4</ele>
        <time>2017-07-30T10:05:00Z</time>
      </trkpt>
      <trkpt lat="42.60454" lon="-0.20426">
        <ele>1749.6</ele>
        <time>2017-07-30T10:05:02Z</time>
      </trkpt>
      <trkpt lat="42.60451" lon="-0.20426">
        <ele>1750.8</ele>
        <time>2017-07-30T10:05:04Z</time>
      </trkpt>
      <trkpt lat="42.60449" lon="-0.20425">
        <ele>1751.9</ele>
        <time>2017-07-30T10:05:06Z</time>
      </trkpt>
      <trkpt lat="42.60446" lon="-0.20425">
        <ele>1752.9</ele>
        <time>2017-07-30T10:05:08Z</time>
      </trkpt>
      <trkpt lat="42.60442" lon="-0.20424">
        <ele>1753.9</ele>
        <time>2017-07-30T10:05:10Z</time>
      </trkpt>
      <trkpt lat="42.6044" lon="-0.20422">
        <ele>1754.4</ele>
        <time>2017-07-30T10:05:12Z</time>
      </trkpt>
      <trkpt lat="42.60437" lon="-0.20419">
        <ele>1753.6</ele>
        <time>2017-07-30T10:05:15Z</time>
      </trkpt>
      <trkpt lat="42.60435" lon="-0.20414">
        <ele>1754.4</ele>
        <time>2017-07-30T10:05:18Z</time>
      </trkpt>
      <trkpt lat="42.60433" lon="-0.20409">
        <ele>1755.2</ele>
        <time>2017-07-30T10:05:21Z</time>
      </trkpt>
      <trkpt lat="42.60432" lon="-0.20406">
        <ele>1754.2</ele>
        <time>2017-07-30T10:05:23Z</time>
      </trkpt>
      <trkpt lat="42.60432" lon="-0.20402">
        <ele>1753</ele>
        <time>2017-07-30T10:05:25Z</time>
      </trkpt>
      <trkpt lat="42.60431" lon="-0.20398">
        <ele>1753</ele>
        <time>2017-07-30T10:05:27Z</time>
      </trkpt>
      <trkpt lat="42.60429" lon="-0.20394">
        <ele>1754</ele>
        <time>2017-07-30T10:05:30Z</time>
      </trkpt>
      <trkpt lat="42.60427" lon="-0.20388">
        <ele>1752</ele>
        <time>2017-07-30T10:05:33Z</time>
      </trkpt>
      <trkpt lat="42.60426" lon="-0.20385">
        <ele>1753.3</ele>
        <time>2017-07-30T10:05:35Z</time>
      </trkpt>
      <trkpt lat="42.60424" lon="-0.20382">
        <ele>1753.2</ele>
        <time>2017-07-30T10:05:37Z</time>
      </trkpt>
      <trkpt lat="42.60422" lon="-0.20377">
        <ele>1754.4</ele>
        <time>2017-07-30T10:05:40Z</time>
      </trkpt>
      <trkpt lat="42.60421" lon="-0.20374">
        <ele>1755.4</ele>
        <time>2017-07-30T10:05:42Z</time>
      </trkpt>
      <trkpt lat="42.60419" lon="-0.20369">
        <ele>1754.3</ele>
        <time>2017-07-30T10:05:45Z</time>
      </trkpt>
      <trkpt lat="42.60418" lon="-0.20365">
        <ele>1753.3</ele>
        <time>2017-07-30T10:05:47Z</time>
      </trkpt>
      <trkpt lat="42.60416" lon="-0.2036">
        <ele>1754.2</ele>
        <time>2017-07-30T10:05:50Z</time>
      </trkpt>
      <trkpt lat="42.60415" lon="-0.20357">
        <ele>1753.2</ele>
        <time>2017-07-30T10:05:52Z</time>
      </trkpt>
      <trkpt lat="42.60414" lon="-0.20354">
        <ele>1754.2</ele>
        <time>2017-07-30T10:05:54Z</time>
      </trkpt>
      <trkpt lat="42.60412" lon="-0.20351">
        <ele>1754.1</ele>
        <time>2017-07-30T10:05:56Z</time>
      </trkpt>
      <trkpt lat="42.6041" lon="-0.20348">
        <ele>1755.4</ele>
        <time>2017-07-30T10:05:58Z</time>
      </trkpt>
      <trkpt lat="42.60408" lon="-0.20345">
        <ele>1756.8</ele>
        <time>2017-07-30T10:06:00Z</time>
      </trkpt>
      <trkpt lat="42.60406" lon="-0.20343">
        <ele>1756.7</ele>
        <time>2017-07-30T10:06:02Z</time>
      </trkpt>
      <trkpt lat="42.60404" lon="-0.2034">
        <ele>1758.4</ele>
        <time>2017-07-30T10:06:04Z</time>
      </trkpt>
      <trkpt lat="42.60402" lon="-0.20335">
        <ele>1757.6</ele>
        <time>2017-07-30T10:06:07Z</time>
      </trkpt>
      <trkpt lat="42.60401" lon="-0.2033">
        <ele>1759.7</ele>
        <time>2017-07-30T10:06:10Z</time>
      </trkpt>
      <trkpt lat="42.60399" lon="-0.20325">
        <ele>1759.5</ele>
        <time>2017-07-30T10:06:13Z</time>
      </trkpt>
      <trkpt lat="42.60398" lon="-0.2032">
        <ele>1762.3</ele>
        <time>2017-07-30T10:06:16Z</time>
      </trkpt>
      <trkpt lat="42.60398" lon="-0.20315">
        <ele>1762.6</ele>
        <time>2017-07-30T10:06:19Z</time>
      </trkpt>
      <trkpt lat="42.60397" lon="-0.20311">
        <ele>1762.9</ele>
        <time>2017-07-30T10:06:21Z</time>
      </trkpt>
      <trkpt lat="42.60396" lon="-0.20306">
        <ele>1763.2</ele>
        <time>2017-07-30T10:06:23Z</time>
      </trkpt>
      <trkpt lat="42.60395" lon="-0.20302">
        <ele>1765.5</ele>
        <time>2017-07-30T10:06:25Z</time>
      </trkpt>
      <trkpt lat="42.60394" lon="-0.20299">
        <ele>1765.5</ele>
        <time>2017-07-30T10:06:27Z</time>
      </trkpt>
      <trkpt lat="42.60393" lon="-0.20295">
        <ele>1765.5</ele>
        <time>2017-07-30T10:06:29Z</time>
      </trkpt>
      <trkpt lat="42.60393" lon="-0.20291">
        <ele>1765.4</ele>
        <time>2017-07-30T10:06:31Z</time>
      </trkpt>
      <trkpt lat="42.60392" lon="-0.20287">
        <ele>1767.2</ele>
        <time>2017-07-30T10:06:33Z</time>
      </trkpt>
      <trkpt lat="42.60392" lon="-0.20283">
        <ele>1767.2</ele>
        <time>2017-07-30T10:06:35Z</time>
      </trkpt>
      <trkpt lat="42.60393" lon="-0.20279">
        <ele>1765.8</ele>
        <time>2017-07-30T10:06:37Z</time>
      </trkpt>
      <trkpt lat="42.60393" lon="-0.20275">
        <ele>1766.3</ele>
        <time>2017-07-30T10:06:39Z</time>
      </trkpt>
      <trkpt lat="42.60393" lon="-0.2027">
        <ele>1766.9</ele>
        <time>2017-07-30T10:06:41Z</time>
      </trkpt>
      <trkpt lat="42.60394" lon="-0.20266">
        <ele>1767.6</ele>
        <time>2017-07-30T10:06:43Z</time>
      </trkpt>
      <trkpt lat="42.60394" lon="-0.20262">
        <ele>1768.5</ele>
        <time>2017-07-30T10:06:45Z</time>
      </trkpt>
      <trkpt lat="42.60395" lon="-0.20258">
        <ele>1769.5</ele>
        <time>2017-07-30T10:06:47Z</time>
      </trkpt>
      <trkpt lat="42.60397" lon="-0.20254">
        <ele>1768.8</ele>
        <time>2017-07-30T10:06:49Z</time>
      </trkpt>
      <trkpt lat="42.60398" lon="-0.20249">
        <ele>1769.5</ele>
        <time>2017-07-30T10:06:51Z</time>
      </trkpt>
      <trkpt lat="42.60399" lon="-0.20245">
        <ele>1770.2</ele>
        <time>2017-07-30T10:06:53Z</time>
      </trkpt>
      <trkpt lat="42.604" lon="-0.20242">
        <ele>1769.2</ele>
        <time>2017-07-30T10:06:55Z</time>
      </trkpt>
      <trkpt lat="42.60401" lon="-0.20238">
        <ele>1769.9</ele>
        <time>2017-07-30T10:06:57Z</time>
      </trkpt>
      <trkpt lat="42.60402" lon="-0.20235">
        <ele>1768.3</ele>
        <time>2017-07-30T10:06:59Z</time>
      </trkpt>
      <trkpt lat="42.60403" lon="-0.20231">
        <ele>1768.9</ele>
        <time>2017-07-30T10:07:01Z</time>
      </trkpt>
      <trkpt lat="42.60405" lon="-0.20227">
        <ele>1769.6</ele>
        <time>2017-07-30T10:07:03Z</time>
      </trkpt>
      <trkpt lat="42.60407" lon="-0.20223">
        <ele>1768.7</ele>
        <time>2017-07-30T10:07:06Z</time>
      </trkpt>
      <trkpt lat="42.60409" lon="-0.2022">
        <ele>1768</ele>
        <time>2017-07-30T10:07:09Z</time>
      </trkpt>
      <trkpt lat="42.6041" lon="-0.20216">
        <ele>1768.7</ele>
        <time>2017-07-30T10:07:11Z</time>
      </trkpt>
      <trkpt lat="42.60412" lon="-0.20213">
        <ele>1768.6</ele>
        <time>2017-07-30T10:07:13Z</time>
      </trkpt>
      <trkpt lat="42.60413" lon="-0.2021">
        <ele>1768.5</ele>
        <time>2017-07-30T10:07:15Z</time>
      </trkpt>
      <trkpt lat="42.60414" lon="-0.20206">
        <ele>1769.6</ele>
        <time>2017-07-30T10:07:17Z</time>
      </trkpt>
      <trkpt lat="42.60414" lon="-0.20202">
        <ele>1770.5</ele>
        <time>2017-07-30T10:07:19Z</time>
      </trkpt>
      <trkpt lat="42.60414" lon="-0.20198">
        <ele>1771.4</ele>
        <time>2017-07-30T10:07:21Z</time>
      </trkpt>
      <trkpt lat="42.60415" lon="-0.20194">
        <ele>1772.1</ele>
        <time>2017-07-30T10:07:23Z</time>
      </trkpt>
      <trkpt lat="42.60415" lon="-0.2019">
        <ele>1772</ele>
        <time>2017-07-30T10:07:25Z</time>
      </trkpt>
      <trkpt lat="42.60416" lon="-0.20185">
        <ele>1772.8</ele>
        <time>2017-07-30T10:07:28Z</time>
      </trkpt>
      <trkpt lat="42.60417" lon="-0.20181">
        <ele>1773.6</ele>
        <time>2017-07-30T10:07:30Z</time>
      </trkpt>
      <trkpt lat="42.60417" lon="-0.20176">
        <ele>1774.5</ele>
        <time>2017-07-30T10:07:32Z</time>
      </trkpt>
      <trkpt lat="42.60418" lon="-0.20172">
        <ele>1774.3</ele>
        <time>2017-07-30T10:07:34Z</time>
      </trkpt>
      <trkpt lat="42.60419" lon="-0.20168">
        <ele>1775</ele>
        <time>2017-07-30T10:07:36Z</time>
      </trkpt>
      <trkpt lat="42.60419" lon="-0.20164">
        <ele>1775.6</ele>
        <time>2017-07-30T10:07:38Z</time>
      </trkpt>
      <trkpt lat="42.6042" lon="-0.2016">
        <ele>1776.3</ele>
        <time>2017-07-30T10:07:40Z</time>
      </trkpt>
      <trkpt lat="42.60421" lon="-0.20156">
        <ele>1777.2</ele>
        <time>2017-07-30T10:07:42Z</time>
      </trkpt>
      <trkpt lat="42.60421" lon="-0.20152">
        <ele>1777.1</ele>
        <time>2017-07-30T10:07:44Z</time>
      </trkpt>
      <trkpt lat="42.60422" lon="-0.20147">
        <ele>1778.1</ele>
        <time>2017-07-30T10:07:47Z</time>
      </trkpt>
      <trkpt lat="42.60422" lon="-0.20143">
        <ele>1779</ele>
        <time>2017-07-30T10:07:49Z</time>
      </trkpt>
      <trkpt lat="42.60423" lon="-0.20139">
        <ele>1779.8</ele>
        <time>2017-07-30T10:07:51Z</time>
      </trkpt>
      <trkpt lat="42.60424" lon="-0.20135">
        <ele>1780.6</ele>
        <time>2017-07-30T10:07:53Z</time>
      </trkpt>
      <trkpt lat="42.60425" lon="-0.20132">
        <ele>1779.3</ele>
        <time>2017-07-30T10:07:55Z</time>
      </trkpt>
      <trkpt lat="42.60427" lon="-0.20129">
        <ele>1780.3</ele>
        <time>2017-07-30T10:07:57Z</time>
      </trkpt>
      <trkpt lat="42.60428" lon="-0.20125">
        <ele>1780.1</ele>
        <time>2017-07-30T10:07:59Z</time>
      </trkpt>
      <trkpt lat="42.6043" lon="-0.20122">
        <ele>1781.3</ele>
        <time>2017-07-30T10:08:01Z</time>
      </trkpt>
      <trkpt lat="42.60431" lon="-0.20118">
        <ele>1781.3</ele>
        <time>2017-07-30T10:08:03Z</time>
      </trkpt>
      <trkpt lat="42.60433" lon="-0.20115">
        <ele>1781.3</ele>
        <time>2017-07-30T10:08:05Z</time>
      </trkpt>
      <trkpt lat="42.60434" lon="-0.20111">
        <ele>1781.3</ele>
        <time>2017-07-30T10:08:07Z</time>
      </trkpt>
      <trkpt lat="42.60436" lon="-0.20108">
        <ele>1782.6</ele>
        <time>2017-07-30T10:08:09Z</time>
      </trkpt>
      <trkpt lat="42.60437" lon="-0.20104">
        <ele>1784.1</ele>
        <time>2017-07-30T10:08:11Z</time>
      </trkpt>
      <trkpt lat="42.60438" lon="-0.20101">
        <ele>1784.4</ele>
        <time>2017-07-30T10:08:13Z</time>
      </trkpt>
      <trkpt lat="42.6044" lon="-0.20098">
        <ele>1783.1</ele>
        <time>2017-07-30T10:08:15Z</time>
      </trkpt>
      <trkpt lat="42.60442" lon="-0.20095">
        <ele>1784.7</ele>
        <time>2017-07-30T10:08:17Z</time>
      </trkpt>
      <trkpt lat="42.60444" lon="-0.20092">
        <ele>1785</ele>
        <time>2017-07-30T10:08:19Z</time>
      </trkpt>
      <trkpt lat="42.60446" lon="-0.20087">
        <ele>1786.4</ele>
        <time>2017-07-30T10:08:22Z</time>
      </trkpt>
      <trkpt lat="42.60448" lon="-0.20083">
        <ele>1786.5</ele>
        <time>2017-07-30T10:08:24Z</time>
      </trkpt>
      <trkpt lat="42.60449" lon="-0.2008">
        <ele>1787.8</ele>
        <time>2017-07-30T10:08:26Z</time>
      </trkpt>
      <trkpt lat="42.6045" lon="-0.20076">
        <ele>1786.5</ele>
        <time>2017-07-30T10:08:28Z</time>
      </trkpt>
      <trkpt lat="42.60451" lon="-0.20073">
        <ele>1787.9</ele>
        <time>2017-07-30T10:08:30Z</time>
      </trkpt>
      <trkpt lat="42.60452" lon="-0.20069">
        <ele>1789.3</ele>
        <time>2017-07-30T10:08:32Z</time>
      </trkpt>
      <trkpt lat="42.60453" lon="-0.20065">
        <ele>1789.1</ele>
        <time>2017-07-30T10:08:34Z</time>
      </trkpt>
      <trkpt lat="42.60454" lon="-0.20061">
        <ele>1790.2</ele>
        <time>2017-07-30T10:08:36Z</time>
      </trkpt>
      <trkpt lat="42.60455" lon="-0.20057">
        <ele>1790.9</ele>
        <time>2017-07-30T10:08:38Z</time>
      </trkpt>
      <trkpt lat="42.60456" lon="-0.20053">
        <ele>1789.8</ele>
        <time>2017-07-30T10:08:40Z</time>
      </trkpt>
      <trkpt lat="42.60457" lon="-0.20049">
        <ele>1790.2</ele>
        <time>2017-07-30T10:08:42Z</time>
      </trkpt>
      <trkpt lat="42.60459" lon="-0.20046">
        <ele>1790.5</ele>
        <time>2017-07-30T10:08:44Z</time>
      </trkpt>
      <trkpt lat="42.6046" lon="-0.20042">
        <ele>1788.9</ele>
        <time>2017-07-30T10:08:46Z</time>
      </trkpt>
      <trkpt lat="42.60461" lon="-0.20039">
        <ele>1789.1</ele>
        <time>2017-07-30T10:08:48Z</time>
      </trkpt>
      <trkpt lat="42.60463" lon="-0.20036">
        <ele>1787.7</ele>
        <time>2017-07-30T10:08:50Z</time>
      </trkpt>
      <trkpt lat="42.60465" lon="-0.20032">
        <ele>1787.8</ele>
        <time>2017-07-30T10:08:52Z</time>
      </trkpt>
      <trkpt lat="42.60466" lon="-0.20028">
        <ele>1786.4</ele>
        <time>2017-07-30T10:08:55Z</time>
      </trkpt>
      <trkpt lat="42.60468" lon="-0.20023">
        <ele>1786.4</ele>
        <time>2017-07-30T10:08:58Z</time>
      </trkpt>
      <trkpt lat="42.60469" lon="-0.20018">
        <ele>1785</ele>
        <time>2017-07-30T10:09:01Z</time>
      </trkpt>
      <trkpt lat="42.6047" lon="-0.20015">
        <ele>1785</ele>
        <time>2017-07-30T10:09:03Z</time>
      </trkpt>
      <trkpt lat="42.6047" lon="-0.20011">
        <ele>1785</ele>
        <time>2017-07-30T10:09:05Z</time>
      </trkpt>
      <trkpt lat="42.6047" lon="-0.20007">
        <ele>1785.1</ele>
        <time>2017-07-30T10:09:07Z</time>
      </trkpt>
      <trkpt lat="42.60469" lon="-0.20001">
        <ele>1785.2</ele>
        <time>2017-07-30T10:09:10Z</time>
      </trkpt>
      <trkpt lat="42.60468" lon="-0.19998">
        <ele>1787.2</ele>
        <time>2017-07-30T10:09:12Z</time>
      </trkpt>
      <trkpt lat="42.60466" lon="-0.19995">
        <ele>1787.2</ele>
        <time>2017-07-30T10:09:15Z</time>
      </trkpt>
      <trkpt lat="42.60464" lon="-0.1999">
        <ele>1789.5</ele>
        <time>2017-07-30T10:09:18Z</time>
      </trkpt>
      <trkpt lat="42.60461" lon="-0.1999">
        <ele>1791.8</ele>
        <time>2017-07-30T10:09:21Z</time>
      </trkpt>
      <trkpt lat="42.60459" lon="-0.19992">
        <ele>1793.8</ele>
        <time>2017-07-30T10:09:23Z</time>
      </trkpt>
      <trkpt lat="42.60457" lon="-0.19995">
        <ele>1793.5</ele>
        <time>2017-07-30T10:09:25Z</time>
      </trkpt>
      <trkpt lat="42.60456" lon="-0.19999">
        <ele>1795.3</ele>
        <time>2017-07-30T10:09:27Z</time>
      </trkpt>
      <trkpt lat="42.60455" lon="-0.20003">
        <ele>1794.8</ele>
        <time>2017-07-30T10:09:29Z</time>
      </trkpt>
      <trkpt lat="42.60455" lon="-0.20007">
        <ele>1794.3</ele>
        <time>2017-07-30T10:09:31Z</time>
      </trkpt>
      <trkpt lat="42.60454" lon="-0.20011">
        <ele>1794.3</ele>
        <time>2017-07-30T10:09:33Z</time>
      </trkpt>
      <trkpt lat="42.60454" lon="-0.20015">
        <ele>1793.6</ele>
        <time>2017-07-30T10:09:35Z</time>
      </trkpt>
      <trkpt lat="42.60454" lon="-0.20019">
        <ele>1793</ele>
        <time>2017-07-30T10:09:37Z</time>
      </trkpt>
      <trkpt lat="42.60453" lon="-0.20024">
        <ele>1792.5</ele>
        <time>2017-07-30T10:09:39Z</time>
      </trkpt>
      <trkpt lat="42.60451" lon="-0.20028">
        <ele>1793.8</ele>
        <time>2017-07-30T10:09:41Z</time>
      </trkpt>
      <trkpt lat="42.60449" lon="-0.20032">
        <ele>1795</ele>
        <time>2017-07-30T10:09:43Z</time>
      </trkpt>
      <trkpt lat="42.60446" lon="-0.20034">
        <ele>1796.2</ele>
        <time>2017-07-30T10:09:45Z</time>
      </trkpt>
      <trkpt lat="42.60444" lon="-0.20036">
        <ele>1796.1</ele>
        <time>2017-07-30T10:09:47Z</time>
      </trkpt>
      <trkpt lat="42.60441" lon="-0.20038">
        <ele>1797.3</ele>
        <time>2017-07-30T10:09:49Z</time>
      </trkpt>
      <trkpt lat="42.60439" lon="-0.20042">
        <ele>1798.5</ele>
        <time>2017-07-30T10:09:52Z</time>
      </trkpt>
      <trkpt lat="42.60436" lon="-0.20044">
        <ele>1800.1</ele>
        <time>2017-07-30T10:09:54Z</time>
      </trkpt>
      <trkpt lat="42.60434" lon="-0.20047">
        <ele>1799.7</ele>
        <time>2017-07-30T10:09:56Z</time>
      </trkpt>
      <trkpt lat="42.60433" lon="-0.2005">
        <ele>1800.8</ele>
        <time>2017-07-30T10:09:58Z</time>
      </trkpt>
      <trkpt lat="42.60431" lon="-0.20054">
        <ele>1800.8</ele>
        <time>2017-07-30T10:10:00Z</time>
      </trkpt>
      <trkpt lat="42.60429" lon="-0.20057">
        <ele>1801.9</ele>
        <time>2017-07-30T10:10:02Z</time>
      </trkpt>
      <trkpt lat="42.60427" lon="-0.2006">
        <ele>1802.8</ele>
        <time>2017-07-30T10:10:04Z</time>
      </trkpt>
      <trkpt lat="42.60425" lon="-0.20062">
        <ele>1802.7</ele>
        <time>2017-07-30T10:10:06Z</time>
      </trkpt>
      <trkpt lat="42.60423" lon="-0.20064">
        <ele>1803.4</ele>
        <time>2017-07-30T10:10:08Z</time>
      </trkpt>
      <trkpt lat="42.60421" lon="-0.20067">
        <ele>1804.7</ele>
        <time>2017-07-30T10:10:10Z</time>
      </trkpt>
      <trkpt lat="42.60419" lon="-0.2007">
        <ele>1803.6</ele>
        <time>2017-07-30T10:10:12Z</time>
      </trkpt>
      <trkpt lat="42.60417" lon="-0.20073">
        <ele>1803.6</ele>
        <time>2017-07-30T10:10:14Z</time>
      </trkpt>
      <trkpt lat="42.60415" lon="-0.20077">
        <ele>1803.4</ele>
        <time>2017-07-30T10:10:16Z</time>
      </trkpt>
      <trkpt lat="42.60413" lon="-0.2008">
        <ele>1803.4</ele>
        <time>2017-07-30T10:10:18Z</time>
      </trkpt>
      <trkpt lat="42.60411" lon="-0.20082">
        <ele>1803.2</ele>
        <time>2017-07-30T10:10:20Z</time>
      </trkpt>
      <trkpt lat="42.60409" lon="-0.20085">
        <ele>1801.7</ele>
        <time>2017-07-30T10:10:22Z</time>
      </trkpt>
      <trkpt lat="42.60406" lon="-0.20088">
        <ele>1802.9</ele>
        <time>2017-07-30T10:10:24Z</time>
      </trkpt>
      <trkpt lat="42.60404" lon="-0.2009">
        <ele>1802.4</ele>
        <time>2017-07-30T10:10:26Z</time>
      </trkpt>
      <trkpt lat="42.60401" lon="-0.20092">
        <ele>1803.7</ele>
        <time>2017-07-30T10:10:28Z</time>
      </trkpt>
      <trkpt lat="42.60399" lon="-0.20094">
        <ele>1801.9</ele>
        <time>2017-07-30T10:10:30Z</time>
      </trkpt>
      <trkpt lat="42.60397" lon="-0.20097">
        <ele>1803.2</ele>
        <time>2017-07-30T10:10:32Z</time>
      </trkpt>
      <trkpt lat="42.60395" lon="-0.201">
        <ele>1802.8</ele>
        <time>2017-07-30T10:10:34Z</time>
      </trkpt>
      <trkpt lat="42.60393" lon="-0.20102">
        <ele>1801.3</ele>
        <time>2017-07-30T10:10:36Z</time>
      </trkpt>
      <trkpt lat="42.6039" lon="-0.20105">
        <ele>1802.5</ele>
        <time>2017-07-30T10:10:39Z</time>
      </trkpt>
      <trkpt lat="42.60387" lon="-0.20107">
        <ele>1802.4</ele>
        <time>2017-07-30T10:10:41Z</time>
      </trkpt>
      <trkpt lat="42.60384" lon="-0.2011">
        <ele>1803.6</ele>
        <time>2017-07-30T10:10:44Z</time>
      </trkpt>
      <trkpt lat="42.60381" lon="-0.20113">
        <ele>1803.9</ele>
        <time>2017-07-30T10:10:47Z</time>
      </trkpt>
      <trkpt lat="42.60378" lon="-0.20114">
        <ele>1805.3</ele>
        <time>2017-07-30T10:10:49Z</time>
      </trkpt>
      <trkpt lat="42.60375" lon="-0.20115">
        <ele>1805.9</ele>
        <time>2017-07-30T10:10:51Z</time>
      </trkpt>
      <trkpt lat="42.60372" lon="-0.20117">
        <ele>1807.4</ele>
        <time>2017-07-30T10:10:53Z</time>
      </trkpt>
      <trkpt lat="42.60369" lon="-0.2012">
        <ele>1808</ele>
        <time>2017-07-30T10:10:55Z</time>
      </trkpt>
      <trkpt lat="42.60366" lon="-0.20122">
        <ele>1809.4</ele>
        <time>2017-07-30T10:10:57Z</time>
      </trkpt>
      <trkpt lat="42.60364" lon="-0.20125">
        <ele>1810.1</ele>
        <time>2017-07-30T10:10:59Z</time>
      </trkpt>
      <trkpt lat="42.60361" lon="-0.20127">
        <ele>1810</ele>
        <time>2017-07-30T10:11:01Z</time>
      </trkpt>
      <trkpt lat="42.60359" lon="-0.2013">
        <ele>1810.7</ele>
        <time>2017-07-30T10:11:03Z</time>
      </trkpt>
      <trkpt lat="42.60356" lon="-0.20134">
        <ele>1811.4</ele>
        <time>2017-07-30T10:11:06Z</time>
      </trkpt>
      <trkpt lat="42.60355" lon="-0.20137">
        <ele>1812.2</ele>
        <time>2017-07-30T10:11:08Z</time>
      </trkpt>
      <trkpt lat="42.60353" lon="-0.2014">
        <ele>1812.2</ele>
        <time>2017-07-30T10:11:10Z</time>
      </trkpt>
      <trkpt lat="42.60351" lon="-0.20143">
        <ele>1813.1</ele>
        <time>2017-07-30T10:11:12Z</time>
      </trkpt>
      <trkpt lat="42.60349" lon="-0.20147">
        <ele>1812.4</ele>
        <time>2017-07-30T10:11:14Z</time>
      </trkpt>
      <trkpt lat="42.60347" lon="-0.2015">
        <ele>1813.1</ele>
        <time>2017-07-30T10:11:16Z</time>
      </trkpt>
      <trkpt lat="42.60345" lon="-0.20153">
        <ele>1814</ele>
        <time>2017-07-30T10:11:18Z</time>
      </trkpt>
      <trkpt lat="42.60343" lon="-0.20156">
        <ele>1814</ele>
        <time>2017-07-30T10:11:20Z</time>
      </trkpt>
      <trkpt lat="42.60341" lon="-0.20159">
        <ele>1815</ele>
        <time>2017-07-30T10:11:22Z</time>
      </trkpt>
      <trkpt lat="42.60339" lon="-0.20162">
        <ele>1816.1</ele>
        <time>2017-07-30T10:11:24Z</time>
      </trkpt>
      <trkpt lat="42.60337" lon="-0.20166">
        <ele>1816.1</ele>
        <time>2017-07-30T10:11:26Z</time>
      </trkpt>
      <trkpt lat="42.60335" lon="-0.20169">
        <ele>1817.2</ele>
        <time>2017-07-30T10:11:28Z</time>
      </trkpt>
      <trkpt lat="42.60334" lon="-0.20173">
        <ele>1816.5</ele>
        <time>2017-07-30T10:11:30Z</time>
      </trkpt>
      <trkpt lat="42.60333" lon="-0.20177">
        <ele>1815.8</ele>
        <time>2017-07-30T10:11:32Z</time>
      </trkpt>
      <trkpt lat="42.60332" lon="-0.20181">
        <ele>1816.4</ele>
        <time>2017-07-30T10:11:34Z</time>
      </trkpt>
      <trkpt lat="42.60331" lon="-0.20185">
        <ele>1815.5</ele>
        <time>2017-07-30T10:11:36Z</time>
      </trkpt>
      <trkpt lat="42.6033" lon="-0.20188">
        <ele>1814.6</ele>
        <time>2017-07-30T10:11:38Z</time>
      </trkpt>
      <trkpt lat="42.60329" lon="-0.20192">
        <ele>1815.4</ele>
        <time>2017-07-30T10:11:40Z</time>
      </trkpt>
      <trkpt lat="42.60327" lon="-0.20196">
        <ele>1815.4</ele>
        <time>2017-07-30T10:11:42Z</time>
      </trkpt>
      <trkpt lat="42.60326" lon="-0.20199">
        <ele>1816.5</ele>
        <time>2017-07-30T10:11:44Z</time>
      </trkpt>
      <trkpt lat="42.60324" lon="-0.20203">
        <ele>1815.8</ele>
        <time>2017-07-30T10:11:46Z</time>
      </trkpt>
      <trkpt lat="42.60323" lon="-0.20206">
        <ele>1817.2</ele>
        <time>2017-07-30T10:11:48Z</time>
      </trkpt>
      <trkpt lat="42.60322" lon="-0.20209">
        <ele>1816.8</ele>
        <time>2017-07-30T10:11:50Z</time>
      </trkpt>
      <trkpt lat="42.6032" lon="-0.20214">
        <ele>1818.5</ele>
        <time>2017-07-30T10:11:53Z</time>
      </trkpt>
      <trkpt lat="42.60319" lon="-0.20218">
        <ele>1818.3</ele>
        <time>2017-07-30T10:11:55Z</time>
      </trkpt>
      <trkpt lat="42.60318" lon="-0.20221">
        <ele>1818.3</ele>
        <time>2017-07-30T10:11:57Z</time>
      </trkpt>
      <trkpt lat="42.60316" lon="-0.20225">
        <ele>1820.3</ele>
        <time>2017-07-30T10:11:59Z</time>
      </trkpt>
      <trkpt lat="42.60315" lon="-0.20228">
        <ele>1820.3</ele>
        <time>2017-07-30T10:12:01Z</time>
      </trkpt>
      <trkpt lat="42.60314" lon="-0.20232">
        <ele>1820.3</ele>
        <time>2017-07-30T10:12:03Z</time>
      </trkpt>
      <trkpt lat="42.60313" lon="-0.20236">
        <ele>1822.3</ele>
        <time>2017-07-30T10:12:05Z</time>
      </trkpt>
      <trkpt lat="42.60312" lon="-0.2024">
        <ele>1822.5</ele>
        <time>2017-07-30T10:12:07Z</time>
      </trkpt>
      <trkpt lat="42.60311" lon="-0.20244">
        <ele>1822.8</ele>
        <time>2017-07-30T10:12:09Z</time>
      </trkpt>
      <trkpt lat="42.6031" lon="-0.20248">
        <ele>1823.2</ele>
        <time>2017-07-30T10:12:11Z</time>
      </trkpt>
      <trkpt lat="42.6031" lon="-0.20252">
        <ele>1823.5</ele>
        <time>2017-07-30T10:12:13Z</time>
      </trkpt>
      <trkpt lat="42.60309" lon="-0.20256">
        <ele>1824</ele>
        <time>2017-07-30T10:12:15Z</time>
      </trkpt>
      <trkpt lat="42.60308" lon="-0.2026">
        <ele>1824.3</ele>
        <time>2017-07-30T10:12:17Z</time>
      </trkpt>
      <trkpt lat="42.60308" lon="-0.20264">
        <ele>1824.7</ele>
        <time>2017-07-30T10:12:19Z</time>
      </trkpt>
      <trkpt lat="42.60308" lon="-0.2027">
        <ele>1825</ele>
        <time>2017-07-30T10:12:22Z</time>
      </trkpt>
      <trkpt lat="42.60308" lon="-0.20274">
        <ele>1825.2</ele>
        <time>2017-07-30T10:12:25Z</time>
      </trkpt>
      <trkpt lat="42.60307" lon="-0.20279">
        <ele>1825.4</ele>
        <time>2017-07-30T10:12:28Z</time>
      </trkpt>
      <trkpt lat="42.60306" lon="-0.20285">
        <ele>1825.6</ele>
        <time>2017-07-30T10:12:31Z</time>
      </trkpt>
      <trkpt lat="42.60306" lon="-0.20288">
        <ele>1825.7</ele>
        <time>2017-07-30T10:12:33Z</time>
      </trkpt>
      <trkpt lat="42.60305" lon="-0.20293">
        <ele>1825.6</ele>
        <time>2017-07-30T10:12:35Z</time>
      </trkpt>
      <trkpt lat="42.60304" lon="-0.20296">
        <ele>1825.6</ele>
        <time>2017-07-30T10:12:37Z</time>
      </trkpt>
      <trkpt lat="42.60304" lon="-0.203">
        <ele>1825.5</ele>
        <time>2017-07-30T10:12:39Z</time>
      </trkpt>
      <trkpt lat="42.60304" lon="-0.20304">
        <ele>1825.3</ele>
        <time>2017-07-30T10:12:41Z</time>
      </trkpt>
      <trkpt lat="42.60303" lon="-0.20308">
        <ele>1825.2</ele>
        <time>2017-07-30T10:12:43Z</time>
      </trkpt>
      <trkpt lat="42.60303" lon="-0.20311">
        <ele>1825</ele>
        <time>2017-07-30T10:12:45Z</time>
      </trkpt>
      <trkpt lat="42.60302" lon="-0.20315">
        <ele>1824.9</ele>
        <time>2017-07-30T10:12:47Z</time>
      </trkpt>
      <trkpt lat="42.60302" lon="-0.20319">
        <ele>1824.8</ele>
        <time>2017-07-30T10:12:49Z</time>
      </trkpt>
      <trkpt lat="42.60302" lon="-0.20323">
        <ele>1824.7</ele>
        <time>2017-07-30T10:12:51Z</time>
      </trkpt>
      <trkpt lat="42.60302" lon="-0.20327">
        <ele>1824.6</ele>
        <time>2017-07-30T10:12:53Z</time>
      </trkpt>
      <trkpt lat="42.60302" lon="-0.20331">
        <ele>1824.6</ele>
        <time>2017-07-30T10:12:55Z</time>
      </trkpt>
      <trkpt lat="42.60303" lon="-0.20335">
        <ele>1824.6</ele>
        <time>2017-07-30T10:12:57Z</time>
      </trkpt>
      <trkpt lat="42.60303" lon="-0.20339">
        <ele>1824.6</ele>
        <time>2017-07-30T10:12:59Z</time>
      </trkpt>
      <trkpt lat="42.60301" lon="-0.20342">
        <ele>1824.8</ele>
        <time>2017-07-30T10:13:01Z</time>
      </trkpt>
      <trkpt lat="42.603" lon="-0.20345">
        <ele>1825</ele>
        <time>2017-07-30T10:13:03Z</time>
      </trkpt>
      <trkpt lat="42.60299" lon="-0.20348">
        <ele>1825.1</ele>
        <time>2017-07-30T10:13:05Z</time>
      </trkpt>
      <trkpt lat="42.60297" lon="-0.20351">
        <ele>1825.3</ele>
        <time>2017-07-30T10:13:07Z</time>
      </trkpt>
      <trkpt lat="42.60294" lon="-0.20353">
        <ele>1825.3</ele>
        <time>2017-07-30T10:13:09Z</time>
      </trkpt>
      <trkpt lat="42.60291" lon="-0.20351">
        <ele>1825.1</ele>
        <time>2017-07-30T10:13:11Z</time>
      </trkpt>
      <trkpt lat="42.6029" lon="-0.20347">
        <ele>1824.9</ele>
        <time>2017-07-30T10:13:13Z</time>
      </trkpt>
      <trkpt lat="42.6029" lon="-0.20342">
        <ele>1824.7</ele>
        <time>2017-07-30T10:13:15Z</time>
      </trkpt>
      <trkpt lat="42.60291" lon="-0.20337">
        <ele>1824.6</ele>
        <time>2017-07-30T10:13:17Z</time>
      </trkpt>
      <trkpt lat="42.60291" lon="-0.20332">
        <ele>1824.6</ele>
        <time>2017-07-30T10:13:19Z</time>
      </trkpt>
      <trkpt lat="42.60291" lon="-0.20327">
        <ele>1824.6</ele>
        <time>2017-07-30T10:13:21Z</time>
      </trkpt>
      <trkpt lat="42.60292" lon="-0.20322">
        <ele>1824.8</ele>
        <time>2017-07-30T10:13:23Z</time>
      </trkpt>
      <trkpt lat="42.60292" lon="-0.20317">
        <ele>1824.9</ele>
        <time>2017-07-30T10:13:25Z</time>
      </trkpt>
      <trkpt lat="42.60292" lon="-0.20312">
        <ele>1825</ele>
        <time>2017-07-30T10:13:27Z</time>
      </trkpt>
      <trkpt lat="42.60291" lon="-0.20308">
        <ele>1825.2</ele>
        <time>2017-07-30T10:13:29Z</time>
      </trkpt>
      <trkpt lat="42.60292" lon="-0.20303">
        <ele>1825.4</ele>
        <time>2017-07-30T10:13:31Z</time>
      </trkpt>
      <trkpt lat="42.60292" lon="-0.20299">
        <ele>1825.5</ele>
        <time>2017-07-30T10:13:33Z</time>
      </trkpt>
      <trkpt lat="42.60291" lon="-0.20294">
        <ele>1825.6</ele>
        <time>2017-07-30T10:13:35Z</time>
      </trkpt>
      <trkpt lat="42.60291" lon="-0.2029">
        <ele>1825.7</ele>
        <time>2017-07-30T10:13:37Z</time>
      </trkpt>
      <trkpt lat="42.60291" lon="-0.20285">
        <ele>1825.5</ele>
        <time>2017-07-30T10:13:39Z</time>
      </trkpt>
      <trkpt lat="42.6029" lon="-0.20281">
        <ele>1825.4</ele>
        <time>2017-07-30T10:13:41Z</time>
      </trkpt>
      <trkpt lat="42.60289" lon="-0.20276">
        <ele>1825.3</ele>
        <time>2017-07-30T10:13:43Z</time>
      </trkpt>
      <trkpt lat="42.60288" lon="-0.20272">
        <ele>1825</ele>
        <time>2017-07-30T10:13:45Z</time>
      </trkpt>
      <trkpt lat="42.60287" lon="-0.20267">
        <ele>1824.8</ele>
        <time>2017-07-30T10:13:47Z</time>
      </trkpt>
      <trkpt lat="42.60287" lon="-0.20263">
        <ele>1824.4</ele>
        <time>2017-07-30T10:13:49Z</time>
      </trkpt>
      <trkpt lat="42.60287" lon="-0.20258">
        <ele>1824</ele>
        <time>2017-07-30T10:13:51Z</time>
      </trkpt>
      <trkpt lat="42.60287" lon="-0.20253">
        <ele>1823.5</ele>
        <time>2017-07-30T10:13:53Z</time>
      </trkpt>
      <trkpt lat="42.60286" lon="-0.20248">
        <ele>1823.1</ele>
        <time>2017-07-30T10:13:55Z</time>
      </trkpt>
      <trkpt lat="42.60286" lon="-0.20243">
        <ele>1822.6</ele>
        <time>2017-07-30T10:13:57Z</time>
      </trkpt>
      <trkpt lat="42.60286" lon="-0.20238">
        <ele>1822.3</ele>
        <time>2017-07-30T10:13:59Z</time>
      </trkpt>
      <trkpt lat="42.60286" lon="-0.20233">
        <ele>1822.1</ele>
        <time>2017-07-30T10:14:01Z</time>
      </trkpt>
      <trkpt lat="42.60287" lon="-0.20228">
        <ele>1821.6</ele>
        <time>2017-07-30T10:14:03Z</time>
      </trkpt>
      <trkpt lat="42.60287" lon="-0.2022">
        <ele>1820.5</ele>
        <time>2017-07-30T10:14:05Z</time>
      </trkpt>
      <trkpt lat="42.60288" lon="-0.20216">
        <ele>1820.4</ele>
        <time>2017-07-30T10:14:06Z</time>
      </trkpt>
      <trkpt lat="42.60288" lon="-0.20211">
        <ele>1821</ele>
        <time>2017-07-30T10:14:07Z</time>
      </trkpt>
      <trkpt lat="42.60289" lon="-0.20207">
        <ele>1821.5</ele>
        <time>2017-07-30T10:14:08Z</time>
      </trkpt>
      <trkpt lat="42.6029" lon="-0.202">
        <ele>1822.3</ele>
        <time>2017-07-30T10:14:10Z</time>
      </trkpt>
      <trkpt lat="42.6029" lon="-0.20194">
        <ele>1823</ele>
        <time>2017-07-30T10:14:12Z</time>
      </trkpt>
      <trkpt lat="42.60291" lon="-0.20188">
        <ele>1824.2</ele>
        <time>2017-07-30T10:14:14Z</time>
      </trkpt>
      <trkpt lat="42.60291" lon="-0.20182">
        <ele>1825.6</ele>
        <time>2017-07-30T10:14:16Z</time>
      </trkpt>
      <trkpt lat="42.60292" lon="-0.20176">
        <ele>1827</ele>
        <time>2017-07-30T10:14:18Z</time>
      </trkpt>
      <trkpt lat="42.60293" lon="-0.2017">
        <ele>1828.3</ele>
        <time>2017-07-30T10:14:20Z</time>
      </trkpt>
      <trkpt lat="42.60295" lon="-0.20164">
        <ele>1828</ele>
        <time>2017-07-30T10:14:22Z</time>
      </trkpt>
      <trkpt lat="42.60296" lon="-0.2016">
        <ele>1827.8</ele>
        <time>2017-07-30T10:14:23Z</time>
      </trkpt>
      <trkpt lat="42.60297" lon="-0.20154">
        <ele>1827.6</ele>
        <time>2017-07-30T10:14:25Z</time>
      </trkpt>
      <trkpt lat="42.60299" lon="-0.20149">
        <ele>1827.4</ele>
        <time>2017-07-30T10:14:27Z</time>
      </trkpt>
      <trkpt lat="42.603" lon="-0.20145">
        <ele>1826.9</ele>
        <time>2017-07-30T10:14:29Z</time>
      </trkpt>
      <trkpt lat="42.60301" lon="-0.2014">
        <ele>1826.3</ele>
        <time>2017-07-30T10:14:31Z</time>
      </trkpt>
      <trkpt lat="42.60302" lon="-0.20135">
        <ele>1825.7</ele>
        <time>2017-07-30T10:14:33Z</time>
      </trkpt>
      <trkpt lat="42.60303" lon="-0.2013">
        <ele>1825</ele>
        <time>2017-07-30T10:14:35Z</time>
      </trkpt>
      <trkpt lat="42.60305" lon="-0.20124">
        <ele>1824.7</ele>
        <time>2017-07-30T10:14:37Z</time>
      </trkpt>
      <trkpt lat="42.60307" lon="-0.20119">
        <ele>1824.6</ele>
        <time>2017-07-30T10:14:39Z</time>
      </trkpt>
      <trkpt lat="42.6031" lon="-0.20115">
        <ele>1823.9</ele>
        <time>2017-07-30T10:14:41Z</time>
      </trkpt>
      <trkpt lat="42.60313" lon="-0.20111">
        <ele>1822.9</ele>
        <time>2017-07-30T10:14:43Z</time>
      </trkpt>
      <trkpt lat="42.60316" lon="-0.20107">
        <ele>1822.2</ele>
        <time>2017-07-30T10:14:45Z</time>
      </trkpt>
      <trkpt lat="42.60319" lon="-0.20104">
        <ele>1821.7</ele>
        <time>2017-07-30T10:14:47Z</time>
      </trkpt>
      <trkpt lat="42.60323" lon="-0.20101">
        <ele>1821.5</ele>
        <time>2017-07-30T10:14:49Z</time>
      </trkpt>
      <trkpt lat="42.60326" lon="-0.20096">
        <ele>1821.3</ele>
        <time>2017-07-30T10:14:51Z</time>
      </trkpt>
      <trkpt lat="42.60327" lon="-0.20091">
        <ele>1822</ele>
        <time>2017-07-30T10:14:53Z</time>
      </trkpt>
      <trkpt lat="42.60329" lon="-0.20086">
        <ele>1823.2</ele>
        <time>2017-07-30T10:14:55Z</time>
      </trkpt>
      <trkpt lat="42.60329" lon="-0.20081">
        <ele>1824.7</ele>
        <time>2017-07-30T10:14:57Z</time>
      </trkpt>
      <trkpt lat="42.6033" lon="-0.20077">
        <ele>1826.4</ele>
        <time>2017-07-30T10:14:59Z</time>
      </trkpt>
      <trkpt lat="42.6033" lon="-0.20072">
        <ele>1827.9</ele>
        <time>2017-07-30T10:15:01Z</time>
      </trkpt>
      <trkpt lat="42.6033" lon="-0.20067">
        <ele>1828.7</ele>
        <time>2017-07-30T10:15:03Z</time>
      </trkpt>
      <trkpt lat="42.6033" lon="-0.20063">
        <ele>1829.4</ele>
        <time>2017-07-30T10:15:05Z</time>
      </trkpt>
      <trkpt lat="42.6033" lon="-0.20059">
        <ele>1829.9</ele>
        <time>2017-07-30T10:15:07Z</time>
      </trkpt>
      <trkpt lat="42.60329" lon="-0.20055">
        <ele>1830.3</ele>
        <time>2017-07-30T10:15:09Z</time>
      </trkpt>
      <trkpt lat="42.60329" lon="-0.2005">
        <ele>1830.7</ele>
        <time>2017-07-30T10:15:12Z</time>
      </trkpt>
      <trkpt lat="42.60329" lon="-0.20045">
        <ele>1830.1</ele>
        <time>2017-07-30T10:15:15Z</time>
      </trkpt>
      <trkpt lat="42.60328" lon="-0.2004">
        <ele>1829.5</ele>
        <time>2017-07-30T10:15:18Z</time>
      </trkpt>
      <trkpt lat="42.60326" lon="-0.20035">
        <ele>1831.6</ele>
        <time>2017-07-30T10:15:21Z</time>
      </trkpt>
      <trkpt lat="42.60325" lon="-0.20031">
        <ele>1833.2</ele>
        <time>2017-07-30T10:15:23Z</time>
      </trkpt>
      <trkpt lat="42.60323" lon="-0.20027">
        <ele>1834.6</ele>
        <time>2017-07-30T10:15:26Z</time>
      </trkpt>
      <trkpt lat="42.6032" lon="-0.20026">
        <ele>1835.4</ele>
        <time>2017-07-30T10:15:28Z</time>
      </trkpt>
      <trkpt lat="42.60317" lon="-0.20024">
        <ele>1836.3</ele>
        <time>2017-07-30T10:15:30Z</time>
      </trkpt>
      <trkpt lat="42.60313" lon="-0.20023">
        <ele>1837.3</ele>
        <time>2017-07-30T10:15:32Z</time>
      </trkpt>
      <trkpt lat="42.6031" lon="-0.20023">
        <ele>1838.2</ele>
        <time>2017-07-30T10:15:34Z</time>
      </trkpt>
      <trkpt lat="42.60307" lon="-0.20022">
        <ele>1839.1</ele>
        <time>2017-07-30T10:15:36Z</time>
      </trkpt>
      <trkpt lat="42.60304" lon="-0.20021">
        <ele>1839.9</ele>
        <time>2017-07-30T10:15:38Z</time>
      </trkpt>
      <trkpt lat="42.60301" lon="-0.2002">
        <ele>1840.8</ele>
        <time>2017-07-30T10:15:40Z</time>
      </trkpt>
      <trkpt lat="42.60298" lon="-0.20019">
        <ele>1841.7</ele>
        <time>2017-07-30T10:15:42Z</time>
      </trkpt>
      <trkpt lat="42.60295" lon="-0.20019">
        <ele>1842.7</ele>
        <time>2017-07-30T10:15:44Z</time>
      </trkpt>
      <trkpt lat="42.60291" lon="-0.20019">
        <ele>1843.8</ele>
        <time>2017-07-30T10:15:46Z</time>
      </trkpt>
      <trkpt lat="42.60287" lon="-0.20018">
        <ele>1844.8</ele>
        <time>2017-07-30T10:15:48Z</time>
      </trkpt>
      <trkpt lat="42.60284" lon="-0.20018">
        <ele>1845.4</ele>
        <time>2017-07-30T10:15:50Z</time>
      </trkpt>
      <trkpt lat="42.6028" lon="-0.20017">
        <ele>1846.1</ele>
        <time>2017-07-30T10:15:52Z</time>
      </trkpt>
      <trkpt lat="42.60276" lon="-0.20017">
        <ele>1847.6</ele>
        <time>2017-07-30T10:15:54Z</time>
      </trkpt>
      <trkpt lat="42.60271" lon="-0.20016">
        <ele>1848.9</ele>
        <time>2017-07-30T10:15:56Z</time>
      </trkpt>
      <trkpt lat="42.60267" lon="-0.20016">
        <ele>1849.4</ele>
        <time>2017-07-30T10:15:58Z</time>
      </trkpt>
      <trkpt lat="42.60262" lon="-0.20015">
        <ele>1849.9</ele>
        <time>2017-07-30T10:16:00Z</time>
      </trkpt>
      <trkpt lat="42.60258" lon="-0.20014">
        <ele>1850.5</ele>
        <time>2017-07-30T10:16:02Z</time>
      </trkpt>
      <trkpt lat="42.60254" lon="-0.20013">
        <ele>1850.8</ele>
        <time>2017-07-30T10:16:04Z</time>
      </trkpt>
      <trkpt lat="42.60249" lon="-0.20013">
        <ele>1851</ele>
        <time>2017-07-30T10:16:06Z</time>
      </trkpt>
      <trkpt lat="42.60245" lon="-0.20012">
        <ele>1850.8</ele>
        <time>2017-07-30T10:16:08Z</time>
      </trkpt>
      <trkpt lat="42.60241" lon="-0.20011">
        <ele>1850.4</ele>
        <time>2017-07-30T10:16:10Z</time>
      </trkpt>
      <trkpt lat="42.60236" lon="-0.2001">
        <ele>1850</ele>
        <time>2017-07-30T10:16:12Z</time>
      </trkpt>
      <trkpt lat="42.60232" lon="-0.20009">
        <ele>1849.5</ele>
        <time>2017-07-30T10:16:14Z</time>
      </trkpt>
      <trkpt lat="42.60228" lon="-0.20007">
        <ele>1849.3</ele>
        <time>2017-07-30T10:16:16Z</time>
      </trkpt>
      <trkpt lat="42.60224" lon="-0.20006">
        <ele>1849.2</ele>
        <time>2017-07-30T10:16:18Z</time>
      </trkpt>
      <trkpt lat="42.6022" lon="-0.20004">
        <ele>1848.9</ele>
        <time>2017-07-30T10:16:20Z</time>
      </trkpt>
      <trkpt lat="42.60217" lon="-0.20002">
        <ele>1848.7</ele>
        <time>2017-07-30T10:16:22Z</time>
      </trkpt>
      <trkpt lat="42.60214" lon="-0.19999">
        <ele>1848.8</ele>
        <time>2017-07-30T10:16:24Z</time>
      </trkpt>
      <trkpt lat="42.6021" lon="-0.19997">
        <ele>1849</ele>
        <time>2017-07-30T10:16:26Z</time>
      </trkpt>
      <trkpt lat="42.60207" lon="-0.19995">
        <ele>1849.5</ele>
        <time>2017-07-30T10:16:28Z</time>
      </trkpt>
      <trkpt lat="42.60204" lon="-0.19992">
        <ele>1850.4</ele>
        <time>2017-07-30T10:16:30Z</time>
      </trkpt>
      <trkpt lat="42.60201" lon="-0.1999">
        <ele>1851.4</ele>
        <time>2017-07-30T10:16:32Z</time>
      </trkpt>
      <trkpt lat="42.60197" lon="-0.19988">
        <ele>1852.3</ele>
        <time>2017-07-30T10:16:34Z</time>
      </trkpt>
      <trkpt lat="42.60195" lon="-0.19986">
        <ele>1853.1</ele>
        <time>2017-07-30T10:16:36Z</time>
      </trkpt>
      <trkpt lat="42.60191" lon="-0.19984">
        <ele>1853.9</ele>
        <time>2017-07-30T10:16:38Z</time>
      </trkpt>
      <trkpt lat="42.60189" lon="-0.19981">
        <ele>1854.6</ele>
        <time>2017-07-30T10:16:40Z</time>
      </trkpt>
      <trkpt lat="42.60186" lon="-0.19978">
        <ele>1854.8</ele>
        <time>2017-07-30T10:16:42Z</time>
      </trkpt>
      <trkpt lat="42.60183" lon="-0.19976">
        <ele>1854.6</ele>
        <time>2017-07-30T10:16:44Z</time>
      </trkpt>
      <trkpt lat="42.6018" lon="-0.19973">
        <ele>1854.5</ele>
        <time>2017-07-30T10:16:46Z</time>
      </trkpt>
      <trkpt lat="42.60177" lon="-0.19971">
        <ele>1854.7</ele>
        <time>2017-07-30T10:16:48Z</time>
      </trkpt>
      <trkpt lat="42.60174" lon="-0.19969">
        <ele>1855</ele>
        <time>2017-07-30T10:16:50Z</time>
      </trkpt>
      <trkpt lat="42.60171" lon="-0.19967">
        <ele>1855.2</ele>
        <time>2017-07-30T10:16:52Z</time>
      </trkpt>
      <trkpt lat="42.60168" lon="-0.19964">
        <ele>1855.4</ele>
        <time>2017-07-30T10:16:54Z</time>
      </trkpt>
      <trkpt lat="42.60165" lon="-0.19962">
        <ele>1855.6</ele>
        <time>2017-07-30T10:16:56Z</time>
      </trkpt>
      <trkpt lat="42.60162" lon="-0.19959">
        <ele>1856.1</ele>
        <time>2017-07-30T10:16:58Z</time>
      </trkpt>
      <trkpt lat="42.6016" lon="-0.19955">
        <ele>1856.7</ele>
        <time>2017-07-30T10:17:00Z</time>
      </trkpt>
      <trkpt lat="42.60158" lon="-0.19952">
        <ele>1857.1</ele>
        <time>2017-07-30T10:17:02Z</time>
      </trkpt>
      <trkpt lat="42.60156" lon="-0.19949">
        <ele>1857.1</ele>
        <time>2017-07-30T10:17:04Z</time>
      </trkpt>
      <trkpt lat="42.60154" lon="-0.19946">
        <ele>1857.1</ele>
        <time>2017-07-30T10:17:06Z</time>
      </trkpt>
      <trkpt lat="42.60152" lon="-0.19943">
        <ele>1857.2</ele>
        <time>2017-07-30T10:17:08Z</time>
      </trkpt>
      <trkpt lat="42.6015" lon="-0.1994">
        <ele>1857.3</ele>
        <time>2017-07-30T10:17:10Z</time>
      </trkpt>
      <trkpt lat="42.60149" lon="-0.19936">
        <ele>1857.4</ele>
        <time>2017-07-30T10:17:12Z</time>
      </trkpt>
      <trkpt lat="42.60147" lon="-0.19933">
        <ele>1857.3</ele>
        <time>2017-07-30T10:17:14Z</time>
      </trkpt>
      <trkpt lat="42.60145" lon="-0.1993">
        <ele>1857.1</ele>
        <time>2017-07-30T10:17:16Z</time>
      </trkpt>
      <trkpt lat="42.60143" lon="-0.19927">
        <ele>1856.9</ele>
        <time>2017-07-30T10:17:18Z</time>
      </trkpt>
      <trkpt lat="42.60141" lon="-0.19923">
        <ele>1857</ele>
        <time>2017-07-30T10:17:20Z</time>
      </trkpt>
      <trkpt lat="42.60138" lon="-0.1992">
        <ele>1857.2</ele>
        <time>2017-07-30T10:17:22Z</time>
      </trkpt>
      <trkpt lat="42.60135" lon="-0.19918">
        <ele>1857.3</ele>
        <time>2017-07-30T10:17:24Z</time>
      </trkpt>
      <trkpt lat="42.60133" lon="-0.19915">
        <ele>1856.8</ele>
        <time>2017-07-30T10:17:26Z</time>
      </trkpt>
      <trkpt lat="42.6013" lon="-0.19913">
        <ele>1856.3</ele>
        <time>2017-07-30T10:17:28Z</time>
      </trkpt>
      <trkpt lat="42.60128" lon="-0.1991">
        <ele>1855.8</ele>
        <time>2017-07-30T10:17:30Z</time>
      </trkpt>
      <trkpt lat="42.60125" lon="-0.19907">
        <ele>1855.3</ele>
        <time>2017-07-30T10:17:32Z</time>
      </trkpt>
      <trkpt lat="42.60123" lon="-0.19905">
        <ele>1854.7</ele>
        <time>2017-07-30T10:17:34Z</time>
      </trkpt>
      <trkpt lat="42.6012" lon="-0.19904">
        <ele>1854.8</ele>
        <time>2017-07-30T10:17:36Z</time>
      </trkpt>
      <trkpt lat="42.60116" lon="-0.19904">
        <ele>1855.3</ele>
        <time>2017-07-30T10:17:38Z</time>
      </trkpt>
      <trkpt lat="42.60113" lon="-0.19904">
        <ele>1855.7</ele>
        <time>2017-07-30T10:17:40Z</time>
      </trkpt>
      <trkpt lat="42.6011" lon="-0.19904">
        <ele>1855.6</ele>
        <time>2017-07-30T10:17:42Z</time>
      </trkpt>
      <trkpt lat="42.60106" lon="-0.19904">
        <ele>1855.5</ele>
        <time>2017-07-30T10:17:44Z</time>
      </trkpt>
      <trkpt lat="42.60103" lon="-0.19903">
        <ele>1855.6</ele>
        <time>2017-07-30T10:17:46Z</time>
      </trkpt>
      <trkpt lat="42.60101" lon="-0.19901">
        <ele>1855.8</ele>
        <time>2017-07-30T10:17:48Z</time>
      </trkpt>
      <trkpt lat="42.60098" lon="-0.19898">
        <ele>1856.1</ele>
        <time>2017-07-30T10:17:50Z</time>
      </trkpt>
      <trkpt lat="42.60096" lon="-0.19896">
        <ele>1856.7</ele>
        <time>2017-07-30T10:17:52Z</time>
      </trkpt>
      <trkpt lat="42.60094" lon="-0.19893">
        <ele>1857.5</ele>
        <time>2017-07-30T10:17:54Z</time>
      </trkpt>
      <trkpt lat="42.60092" lon="-0.1989">
        <ele>1858.4</ele>
        <time>2017-07-30T10:17:56Z</time>
      </trkpt>
      <trkpt lat="42.6009" lon="-0.19887">
        <ele>1859.3</ele>
        <time>2017-07-30T10:17:58Z</time>
      </trkpt>
      <trkpt lat="42.60088" lon="-0.19885">
        <ele>1860.2</ele>
        <time>2017-07-30T10:18:00Z</time>
      </trkpt>
      <trkpt lat="42.60086" lon="-0.19882">
        <ele>1861.1</ele>
        <time>2017-07-30T10:18:02Z</time>
      </trkpt>
      <trkpt lat="42.60084" lon="-0.19879">
        <ele>1861.8</ele>
        <time>2017-07-30T10:18:04Z</time>
      </trkpt>
      <trkpt lat="42.60082" lon="-0.19876">
        <ele>1862.5</ele>
        <time>2017-07-30T10:18:06Z</time>
      </trkpt>
      <trkpt lat="42.6008" lon="-0.19872">
        <ele>1863.1</ele>
        <time>2017-07-30T10:18:08Z</time>
      </trkpt>
      <trkpt lat="42.60078" lon="-0.1987">
        <ele>1863.9</ele>
        <time>2017-07-30T10:18:10Z</time>
      </trkpt>
      <trkpt lat="42.60075" lon="-0.19869">
        <ele>1864.6</ele>
        <time>2017-07-30T10:18:12Z</time>
      </trkpt>
      <trkpt lat="42.60073" lon="-0.19867">
        <ele>1865.3</ele>
        <time>2017-07-30T10:18:14Z</time>
      </trkpt>
      <trkpt lat="42.6007" lon="-0.19864">
        <ele>1865.4</ele>
        <time>2017-07-30T10:18:16Z</time>
      </trkpt>
      <trkpt lat="42.60068" lon="-0.19862">
        <ele>1865.3</ele>
        <time>2017-07-30T10:18:18Z</time>
      </trkpt>
      <trkpt lat="42.60066" lon="-0.1986">
        <ele>1865.2</ele>
        <time>2017-07-30T10:18:20Z</time>
      </trkpt>
      <trkpt lat="42.60064" lon="-0.19857">
        <ele>1865.6</ele>
        <time>2017-07-30T10:18:22Z</time>
      </trkpt>
      <trkpt lat="42.60062" lon="-0.19854">
        <ele>1866.2</ele>
        <time>2017-07-30T10:18:24Z</time>
      </trkpt>
      <trkpt lat="42.60059" lon="-0.1985">
        <ele>1867</ele>
        <time>2017-07-30T10:18:27Z</time>
      </trkpt>
      <trkpt lat="42.60058" lon="-0.19847">
        <ele>1867.4</ele>
        <time>2017-07-30T10:18:29Z</time>
      </trkpt>
      <trkpt lat="42.60055" lon="-0.19842">
        <ele>1867.9</ele>
        <time>2017-07-30T10:18:32Z</time>
      </trkpt>
      <trkpt lat="42.60054" lon="-0.19839">
        <ele>1868.3</ele>
        <time>2017-07-30T10:18:34Z</time>
      </trkpt>
      <trkpt lat="42.60052" lon="-0.19835">
        <ele>1868.6</ele>
        <time>2017-07-30T10:18:36Z</time>
      </trkpt>
      <trkpt lat="42.6005" lon="-0.19832">
        <ele>1868.9</ele>
        <time>2017-07-30T10:18:38Z</time>
      </trkpt>
      <trkpt lat="42.60048" lon="-0.19829">
        <ele>1868.8</ele>
        <time>2017-07-30T10:18:40Z</time>
      </trkpt>
      <trkpt lat="42.60047" lon="-0.19826">
        <ele>1868.4</ele>
        <time>2017-07-30T10:18:42Z</time>
      </trkpt>
      <trkpt lat="42.60045" lon="-0.19823">
        <ele>1868</ele>
        <time>2017-07-30T10:18:44Z</time>
      </trkpt>
      <trkpt lat="42.60043" lon="-0.19819">
        <ele>1867.7</ele>
        <time>2017-07-30T10:18:46Z</time>
      </trkpt>
      <trkpt lat="42.60041" lon="-0.19816">
        <ele>1867.6</ele>
        <time>2017-07-30T10:18:48Z</time>
      </trkpt>
      <trkpt lat="42.60039" lon="-0.19812">
        <ele>1867.6</ele>
        <time>2017-07-30T10:18:50Z</time>
      </trkpt>
      <trkpt lat="42.60038" lon="-0.19809">
        <ele>1867.7</ele>
        <time>2017-07-30T10:18:52Z</time>
      </trkpt>
      <trkpt lat="42.60036" lon="-0.19805">
        <ele>1867.9</ele>
        <time>2017-07-30T10:18:54Z</time>
      </trkpt>
      <trkpt lat="42.60034" lon="-0.19801">
        <ele>1868.2</ele>
        <time>2017-07-30T10:18:56Z</time>
      </trkpt>
      <trkpt lat="42.60032" lon="-0.19797">
        <ele>1868.6</ele>
        <time>2017-07-30T10:18:58Z</time>
      </trkpt>
      <trkpt lat="42.6003" lon="-0.19793">
        <ele>1869.2</ele>
        <time>2017-07-30T10:19:00Z</time>
      </trkpt>
      <trkpt lat="42.60028" lon="-0.19789">
        <ele>1869.8</ele>
        <time>2017-07-30T10:19:02Z</time>
      </trkpt>
      <trkpt lat="42.60027" lon="-0.19784">
        <ele>1870.6</ele>
        <time>2017-07-30T10:19:04Z</time>
      </trkpt>
      <trkpt lat="42.60026" lon="-0.1978">
        <ele>1871.3</ele>
        <time>2017-07-30T10:19:06Z</time>
      </trkpt>
      <trkpt lat="42.60024" lon="-0.19777">
        <ele>1871.4</ele>
        <time>2017-07-30T10:19:08Z</time>
      </trkpt>
      <trkpt lat="42.60021" lon="-0.19774">
        <ele>1871.5</ele>
        <time>2017-07-30T10:19:10Z</time>
      </trkpt>
      <trkpt lat="42.60019" lon="-0.19771">
        <ele>1871.6</ele>
        <time>2017-07-30T10:19:12Z</time>
      </trkpt>
      <trkpt lat="42.60017" lon="-0.19768">
        <ele>1871.7</ele>
        <time>2017-07-30T10:19:14Z</time>
      </trkpt>
      <trkpt lat="42.60015" lon="-0.19765">
        <ele>1871.8</ele>
        <time>2017-07-30T10:19:16Z</time>
      </trkpt>
      <trkpt lat="42.60013" lon="-0.19762">
        <ele>1872.3</ele>
        <time>2017-07-30T10:19:18Z</time>
      </trkpt>
      <trkpt lat="42.60011" lon="-0.19758">
        <ele>1873.2</ele>
        <time>2017-07-30T10:19:20Z</time>
      </trkpt>
      <trkpt lat="42.60009" lon="-0.19754">
        <ele>1873.9</ele>
        <time>2017-07-30T10:19:22Z</time>
      </trkpt>
      <trkpt lat="42.60007" lon="-0.1975">
        <ele>1874.3</ele>
        <time>2017-07-30T10:19:24Z</time>
      </trkpt>
      <trkpt lat="42.60005" lon="-0.19747">
        <ele>1874.6</ele>
        <time>2017-07-30T10:19:26Z</time>
      </trkpt>
      <trkpt lat="42.60003" lon="-0.19743">
        <ele>1874.9</ele>
        <time>2017-07-30T10:19:28Z</time>
      </trkpt>
      <trkpt lat="42.60001" lon="-0.1974">
        <ele>1875.1</ele>
        <time>2017-07-30T10:19:30Z</time>
      </trkpt>
      <trkpt lat="42.59999" lon="-0.19736">
        <ele>1875.3</ele>
        <time>2017-07-30T10:19:32Z</time>
      </trkpt>
      <trkpt lat="42.59997" lon="-0.19733">
        <ele>1876.1</ele>
        <time>2017-07-30T10:19:34Z</time>
      </trkpt>
      <trkpt lat="42.59996" lon="-0.1973">
        <ele>1876.8</ele>
        <time>2017-07-30T10:19:36Z</time>
      </trkpt>
      <trkpt lat="42.59994" lon="-0.19726">
        <ele>1877.4</ele>
        <time>2017-07-30T10:19:38Z</time>
      </trkpt>
      <trkpt lat="42.59993" lon="-0.19723">
        <ele>1877.7</ele>
        <time>2017-07-30T10:19:40Z</time>
      </trkpt>
      <trkpt lat="42.59991" lon="-0.19719">
        <ele>1878.1</ele>
        <time>2017-07-30T10:19:42Z</time>
      </trkpt>
      <trkpt lat="42.59989" lon="-0.19715">
        <ele>1878.4</ele>
        <time>2017-07-30T10:19:44Z</time>
      </trkpt>
      <trkpt lat="42.59988" lon="-0.19711">
        <ele>1878.7</ele>
        <time>2017-07-30T10:19:46Z</time>
      </trkpt>
      <trkpt lat="42.59987" lon="-0.19707">
        <ele>1878.9</ele>
        <time>2017-07-30T10:19:48Z</time>
      </trkpt>
      <trkpt lat="42.59986" lon="-0.19704">
        <ele>1879.9</ele>
        <time>2017-07-30T10:19:50Z</time>
      </trkpt>
      <trkpt lat="42.59985" lon="-0.197">
        <ele>1881</ele>
        <time>2017-07-30T10:19:52Z</time>
      </trkpt>
      <trkpt lat="42.59983" lon="-0.19697">
        <ele>1881.9</ele>
        <time>2017-07-30T10:19:54Z</time>
      </trkpt>
      <trkpt lat="42.59982" lon="-0.19693">
        <ele>1882.3</ele>
        <time>2017-07-30T10:19:56Z</time>
      </trkpt>
      <trkpt lat="42.5998" lon="-0.19688">
        <ele>1882.7</ele>
        <time>2017-07-30T10:19:59Z</time>
      </trkpt>
      <trkpt lat="42.59978" lon="-0.19685">
        <ele>1882.9</ele>
        <time>2017-07-30T10:20:01Z</time>
      </trkpt>
      <trkpt lat="42.59977" lon="-0.19681">
        <ele>1883</ele>
        <time>2017-07-30T10:20:03Z</time>
      </trkpt>
      <trkpt lat="42.59975" lon="-0.19678">
        <ele>1883.2</ele>
        <time>2017-07-30T10:20:05Z</time>
      </trkpt>
      <trkpt lat="42.59974" lon="-0.19675">
        <ele>1883.2</ele>
        <time>2017-07-30T10:20:07Z</time>
      </trkpt>
      <trkpt lat="42.59972" lon="-0.19672">
        <ele>1883.2</ele>
        <time>2017-07-30T10:20:09Z</time>
      </trkpt>
      <trkpt lat="42.5997" lon="-0.19669">
        <ele>1883.5</ele>
        <time>2017-07-30T10:20:11Z</time>
      </trkpt>
      <trkpt lat="42.59968" lon="-0.19666">
        <ele>1884.2</ele>
        <time>2017-07-30T10:20:13Z</time>
      </trkpt>
      <trkpt lat="42.59966" lon="-0.19662">
        <ele>1884.9</ele>
        <time>2017-07-30T10:20:15Z</time>
      </trkpt>
      <trkpt lat="42.59964" lon="-0.19659">
        <ele>1884.9</ele>
        <time>2017-07-30T10:20:17Z</time>
      </trkpt>
      <trkpt lat="42.59963" lon="-0.19655">
        <ele>1884.7</ele>
        <time>2017-07-30T10:20:19Z</time>
      </trkpt>
      <trkpt lat="42.59961" lon="-0.19652">
        <ele>1884.4</ele>
        <time>2017-07-30T10:20:21Z</time>
      </trkpt>
      <trkpt lat="42.5996" lon="-0.19648">
        <ele>1884</ele>
        <time>2017-07-30T10:20:23Z</time>
      </trkpt>
      <trkpt lat="42.5996" lon="-0.19644">
        <ele>1883.6</ele>
        <time>2017-07-30T10:20:25Z</time>
      </trkpt>
      <trkpt lat="42.59959" lon="-0.1964">
        <ele>1882.9</ele>
        <time>2017-07-30T10:20:27Z</time>
      </trkpt>
      <trkpt lat="42.59958" lon="-0.19635">
        <ele>1882</ele>
        <time>2017-07-30T10:20:29Z</time>
      </trkpt>
      <trkpt lat="42.59957" lon="-0.19631">
        <ele>1881.1</ele>
        <time>2017-07-30T10:20:31Z</time>
      </trkpt>
      <trkpt lat="42.59956" lon="-0.19627">
        <ele>1880.5</ele>
        <time>2017-07-30T10:20:33Z</time>
      </trkpt>
      <trkpt lat="42.59955" lon="-0.19623">
        <ele>1879.8</ele>
        <time>2017-07-30T10:20:35Z</time>
      </trkpt>
      <trkpt lat="42.59954" lon="-0.19619">
        <ele>1879.1</ele>
        <time>2017-07-30T10:20:37Z</time>
      </trkpt>
      <trkpt lat="42.59952" lon="-0.19615">
        <ele>1878.5</ele>
        <time>2017-07-30T10:20:39Z</time>
      </trkpt>
      <trkpt lat="42.59951" lon="-0.1961">
        <ele>1877.9</ele>
        <time>2017-07-30T10:20:41Z</time>
      </trkpt>
      <trkpt lat="42.59949" lon="-0.19606">
        <ele>1877.1</ele>
        <time>2017-07-30T10:20:43Z</time>
      </trkpt>
      <trkpt lat="42.59949" lon="-0.19602">
        <ele>1876.4</ele>
        <time>2017-07-30T10:20:45Z</time>
      </trkpt>
      <trkpt lat="42.59948" lon="-0.19597">
        <ele>1875.8</ele>
        <time>2017-07-30T10:20:47Z</time>
      </trkpt>
      <trkpt lat="42.59947" lon="-0.19593">
        <ele>1875.4</ele>
        <time>2017-07-30T10:20:49Z</time>
      </trkpt>
      <trkpt lat="42.59946" lon="-0.19589">
        <ele>1875</ele>
        <time>2017-07-30T10:20:51Z</time>
      </trkpt>
      <trkpt lat="42.59946" lon="-0.19584">
        <ele>1875</ele>
        <time>2017-07-30T10:20:53Z</time>
      </trkpt>
      <trkpt lat="42.59945" lon="-0.1958">
        <ele>1875.2</ele>
        <time>2017-07-30T10:20:55Z</time>
      </trkpt>
      <trkpt lat="42.59944" lon="-0.19576">
        <ele>1875.3</ele>
        <time>2017-07-30T10:20:57Z</time>
      </trkpt>
      <trkpt lat="42.59942" lon="-0.19571">
        <ele>1875</ele>
        <time>2017-07-30T10:20:59Z</time>
      </trkpt>
      <trkpt lat="42.59941" lon="-0.19567">
        <ele>1874.6</ele>
        <time>2017-07-30T10:21:01Z</time>
      </trkpt>
      <trkpt lat="42.5994" lon="-0.19563">
        <ele>1874.3</ele>
        <time>2017-07-30T10:21:03Z</time>
      </trkpt>
      <trkpt lat="42.59938" lon="-0.1956">
        <ele>1874.1</ele>
        <time>2017-07-30T10:21:05Z</time>
      </trkpt>
      <trkpt lat="42.59937" lon="-0.19556">
        <ele>1873.9</ele>
        <time>2017-07-30T10:21:07Z</time>
      </trkpt>
      <trkpt lat="42.59936" lon="-0.19552">
        <ele>1873.8</ele>
        <time>2017-07-30T10:21:09Z</time>
      </trkpt>
      <trkpt lat="42.59934" lon="-0.19549">
        <ele>1874</ele>
        <time>2017-07-30T10:21:11Z</time>
      </trkpt>
      <trkpt lat="42.59932" lon="-0.19545">
        <ele>1874.1</ele>
        <time>2017-07-30T10:21:13Z</time>
      </trkpt>
      <trkpt lat="42.59931" lon="-0.19542">
        <ele>1874.7</ele>
        <time>2017-07-30T10:21:15Z</time>
      </trkpt>
      <trkpt lat="42.59929" lon="-0.19538">
        <ele>1875.6</ele>
        <time>2017-07-30T10:21:17Z</time>
      </trkpt>
      <trkpt lat="42.59926" lon="-0.19536">
        <ele>1876.5</ele>
        <time>2017-07-30T10:21:19Z</time>
      </trkpt>
      <trkpt lat="42.59924" lon="-0.19533">
        <ele>1878.1</ele>
        <time>2017-07-30T10:21:21Z</time>
      </trkpt>
      <trkpt lat="42.59921" lon="-0.19532">
        <ele>1879.9</ele>
        <time>2017-07-30T10:21:23Z</time>
      </trkpt>
      <trkpt lat="42.59918" lon="-0.1953">
        <ele>1881.4</ele>
        <time>2017-07-30T10:21:25Z</time>
      </trkpt>
      <trkpt lat="42.59915" lon="-0.19527">
        <ele>1882.2</ele>
        <time>2017-07-30T10:21:27Z</time>
      </trkpt>
      <trkpt lat="42.59913" lon="-0.19525">
        <ele>1883</ele>
        <time>2017-07-30T10:21:29Z</time>
      </trkpt>
      <trkpt lat="42.5991" lon="-0.19522">
        <ele>1883.4</ele>
        <time>2017-07-30T10:21:31Z</time>
      </trkpt>
      <trkpt lat="42.59907" lon="-0.1952">
        <ele>1883.6</ele>
        <time>2017-07-30T10:21:33Z</time>
      </trkpt>
      <trkpt lat="42.59904" lon="-0.19518">
        <ele>1883.8</ele>
        <time>2017-07-30T10:21:35Z</time>
      </trkpt>
      <trkpt lat="42.59902" lon="-0.19516">
        <ele>1884.4</ele>
        <time>2017-07-30T10:21:37Z</time>
      </trkpt>
      <trkpt lat="42.59899" lon="-0.19514">
        <ele>1884.9</ele>
        <time>2017-07-30T10:21:39Z</time>
      </trkpt>
      <trkpt lat="42.59896" lon="-0.19511">
        <ele>1885.3</ele>
        <time>2017-07-30T10:21:41Z</time>
      </trkpt>
      <trkpt lat="42.59893" lon="-0.19509">
        <ele>1885.6</ele>
        <time>2017-07-30T10:21:43Z</time>
      </trkpt>
      <trkpt lat="42.59891" lon="-0.19507">
        <ele>1885.8</ele>
        <time>2017-07-30T10:21:45Z</time>
      </trkpt>
      <trkpt lat="42.59888" lon="-0.19505">
        <ele>1885.7</ele>
        <time>2017-07-30T10:21:47Z</time>
      </trkpt>
      <trkpt lat="42.59886" lon="-0.19502">
        <ele>1885.7</ele>
        <time>2017-07-30T10:21:49Z</time>
      </trkpt>
      <trkpt lat="42.59884" lon="-0.19499">
        <ele>1885.7</ele>
        <time>2017-07-30T10:21:51Z</time>
      </trkpt>
      <trkpt lat="42.59881" lon="-0.19497">
        <ele>1885.9</ele>
        <time>2017-07-30T10:21:53Z</time>
      </trkpt>
      <trkpt lat="42.59879" lon="-0.19493">
        <ele>1886.1</ele>
        <time>2017-07-30T10:23:37Z</time>
      </trkpt>
      <trkpt lat="42.59876" lon="-0.1949">
        <ele>1885.9</ele>
        <time>2017-07-30T10:23:40Z</time>
      </trkpt>
      <trkpt lat="42.59873" lon="-0.19487">
        <ele>1885.7</ele>
        <time>2017-07-30T10:23:42Z</time>
      </trkpt>
      <trkpt lat="42.59871" lon="-0.19485">
        <ele>1885.5</ele>
        <time>2017-07-30T10:23:44Z</time>
      </trkpt>
      <trkpt lat="42.59869" lon="-0.19481">
        <ele>1885.1</ele>
        <time>2017-07-30T10:23:46Z</time>
      </trkpt>
      <trkpt lat="42.59867" lon="-0.19477">
        <ele>1884.7</ele>
        <time>2017-07-30T10:23:48Z</time>
      </trkpt>
      <trkpt lat="42.59865" lon="-0.19473">
        <ele>1884.8</ele>
        <time>2017-07-30T10:23:50Z</time>
      </trkpt>
      <trkpt lat="42.59864" lon="-0.19469">
        <ele>1885</ele>
        <time>2017-07-30T10:23:52Z</time>
      </trkpt>
      <trkpt lat="42.59862" lon="-0.19466">
        <ele>1885.3</ele>
        <time>2017-07-30T10:23:54Z</time>
      </trkpt>
      <trkpt lat="42.59861" lon="-0.19462">
        <ele>1886</ele>
        <time>2017-07-30T10:23:56Z</time>
      </trkpt>
      <trkpt lat="42.59859" lon="-0.19458">
        <ele>1886.7</ele>
        <time>2017-07-30T10:23:58Z</time>
      </trkpt>
      <trkpt lat="42.59857" lon="-0.19454">
        <ele>1887.4</ele>
        <time>2017-07-30T10:24:00Z</time>
      </trkpt>
      <trkpt lat="42.59855" lon="-0.1945">
        <ele>1888.1</ele>
        <time>2017-07-30T10:24:02Z</time>
      </trkpt>
      <trkpt lat="42.59854" lon="-0.19447">
        <ele>1888.7</ele>
        <time>2017-07-30T10:24:04Z</time>
      </trkpt>
      <trkpt lat="42.59852" lon="-0.19443">
        <ele>1889.2</ele>
        <time>2017-07-30T10:24:06Z</time>
      </trkpt>
      <trkpt lat="42.5985" lon="-0.1944">
        <ele>1889.7</ele>
        <time>2017-07-30T10:24:08Z</time>
      </trkpt>
      <trkpt lat="42.59848" lon="-0.19436">
        <ele>1890.2</ele>
        <time>2017-07-30T10:24:10Z</time>
      </trkpt>
      <trkpt lat="42.59847" lon="-0.19432">
        <ele>1890.4</ele>
        <time>2017-07-30T10:24:12Z</time>
      </trkpt>
      <trkpt lat="42.59845" lon="-0.19429">
        <ele>1890.5</ele>
        <time>2017-07-30T10:24:14Z</time>
      </trkpt>
      <trkpt lat="42.59843" lon="-0.19425">
        <ele>1890.7</ele>
        <time>2017-07-30T10:24:16Z</time>
      </trkpt>
      <trkpt lat="42.5984" lon="-0.19422">
        <ele>1890.9</ele>
        <time>2017-07-30T10:24:18Z</time>
      </trkpt>
      <trkpt lat="42.59839" lon="-0.19419">
        <ele>1891.1</ele>
        <time>2017-07-30T10:24:20Z</time>
      </trkpt>
      <trkpt lat="42.59837" lon="-0.19415">
        <ele>1891.2</ele>
        <time>2017-07-30T10:24:22Z</time>
      </trkpt>
      <trkpt lat="42.59835" lon="-0.19412">
        <ele>1891.3</ele>
        <time>2017-07-30T10:24:24Z</time>
      </trkpt>
      <trkpt lat="42.59834" lon="-0.19409">
        <ele>1891.3</ele>
        <time>2017-07-30T10:24:26Z</time>
      </trkpt>
      <trkpt lat="42.59832" lon="-0.19405">
        <ele>1891.3</ele>
        <time>2017-07-30T10:24:28Z</time>
      </trkpt>
      <trkpt lat="42.59831" lon="-0.19402">
        <ele>1891.2</ele>
        <time>2017-07-30T10:24:30Z</time>
      </trkpt>
      <trkpt lat="42.59829" lon="-0.19398">
        <ele>1891</ele>
        <time>2017-07-30T10:24:32Z</time>
      </trkpt>
      <trkpt lat="42.59827" lon="-0.19395">
        <ele>1890.9</ele>
        <time>2017-07-30T10:24:34Z</time>
      </trkpt>
      <trkpt lat="42.59826" lon="-0.19392">
        <ele>1890.9</ele>
        <time>2017-07-30T10:24:36Z</time>
      </trkpt>
      <trkpt lat="42.59824" lon="-0.19388">
        <ele>1890.8</ele>
        <time>2017-07-30T10:24:38Z</time>
      </trkpt>
      <trkpt lat="42.59823" lon="-0.19385">
        <ele>1890.8</ele>
        <time>2017-07-30T10:24:40Z</time>
      </trkpt>
      <trkpt lat="42.59821" lon="-0.19383">
        <ele>1890.8</ele>
        <time>2017-07-30T10:24:42Z</time>
      </trkpt>
      <trkpt lat="42.59819" lon="-0.1938">
        <ele>1890.9</ele>
        <time>2017-07-30T10:24:44Z</time>
      </trkpt>
      <trkpt lat="42.59817" lon="-0.19375">
        <ele>1891.4</ele>
        <time>2017-07-30T10:24:47Z</time>
      </trkpt>
      <trkpt lat="42.59814" lon="-0.19371">
        <ele>1892</ele>
        <time>2017-07-30T10:24:50Z</time>
      </trkpt>
      <trkpt lat="42.59812" lon="-0.19369">
        <ele>1892.5</ele>
        <time>2017-07-30T10:24:52Z</time>
      </trkpt>
      <trkpt lat="42.5981" lon="-0.19366">
        <ele>1892.9</ele>
        <time>2017-07-30T10:24:54Z</time>
      </trkpt>
      <trkpt lat="42.59808" lon="-0.19363">
        <ele>1893.3</ele>
        <time>2017-07-30T10:24:56Z</time>
      </trkpt>
      <trkpt lat="42.59806" lon="-0.19361">
        <ele>1893.8</ele>
        <time>2017-07-30T10:24:58Z</time>
      </trkpt>
      <trkpt lat="42.59803" lon="-0.19358">
        <ele>1894.3</ele>
        <time>2017-07-30T10:25:00Z</time>
      </trkpt>
      <trkpt lat="42.59801" lon="-0.19356">
        <ele>1894.8</ele>
        <time>2017-07-30T10:25:02Z</time>
      </trkpt>
      <trkpt lat="42.59799" lon="-0.19353">
        <ele>1895.3</ele>
        <time>2017-07-30T10:25:04Z</time>
      </trkpt>
      <trkpt lat="42.59797" lon="-0.1935">
        <ele>1896</ele>
        <time>2017-07-30T10:25:06Z</time>
      </trkpt>
      <trkpt lat="42.59795" lon="-0.19348">
        <ele>1896.5</ele>
        <time>2017-07-30T10:25:08Z</time>
      </trkpt>
      <trkpt lat="42.59792" lon="-0.19345">
        <ele>1897.5</ele>
        <time>2017-07-30T10:25:11Z</time>
      </trkpt>
      <trkpt lat="42.59789" lon="-0.19341">
        <ele>1898.5</ele>
        <time>2017-07-30T10:25:14Z</time>
      </trkpt>
      <trkpt lat="42.59786" lon="-0.19339">
        <ele>1899.5</ele>
        <time>2017-07-30T10:25:17Z</time>
      </trkpt>
      <trkpt lat="42.59783" lon="-0.19336">
        <ele>1900.3</ele>
        <time>2017-07-30T10:25:20Z</time>
      </trkpt>
      <trkpt lat="42.5978" lon="-0.19332">
        <ele>1901.2</ele>
        <time>2017-07-30T10:25:23Z</time>
      </trkpt>
      <trkpt lat="42.59778" lon="-0.19329">
        <ele>1901.9</ele>
        <time>2017-07-30T10:25:26Z</time>
      </trkpt>
      <trkpt lat="42.59775" lon="-0.19326">
        <ele>1902.6</ele>
        <time>2017-07-30T10:25:29Z</time>
      </trkpt>
      <trkpt lat="42.59772" lon="-0.19323">
        <ele>1903.1</ele>
        <time>2017-07-30T10:25:32Z</time>
      </trkpt>
      <trkpt lat="42.59769" lon="-0.1932">
        <ele>1903.4</ele>
        <time>2017-07-30T10:25:35Z</time>
      </trkpt>
      <trkpt lat="42.59767" lon="-0.19317">
        <ele>1903.7</ele>
        <time>2017-07-30T10:25:38Z</time>
      </trkpt>
      <trkpt lat="42.59765" lon="-0.19314">
        <ele>1904</ele>
        <time>2017-07-30T10:25:41Z</time>
      </trkpt>
      <trkpt lat="42.59762" lon="-0.19311">
        <ele>1904.4</ele>
        <time>2017-07-30T10:25:44Z</time>
      </trkpt>
      <trkpt lat="42.59759" lon="-0.19308">
        <ele>1905.1</ele>
        <time>2017-07-30T10:25:47Z</time>
      </trkpt>
      <trkpt lat="42.59756" lon="-0.19306">
        <ele>1905.8</ele>
        <time>2017-07-30T10:25:50Z</time>
      </trkpt>
      <trkpt lat="42.59753" lon="-0.19305">
        <ele>1906.7</ele>
        <time>2017-07-30T10:25:53Z</time>
      </trkpt>
      <trkpt lat="42.5975" lon="-0.19302">
        <ele>1907.8</ele>
        <time>2017-07-30T10:25:56Z</time>
      </trkpt>
      <trkpt lat="42.59747" lon="-0.19299">
        <ele>1908.9</ele>
        <time>2017-07-30T10:25:59Z</time>
      </trkpt>
      <trkpt lat="42.59745" lon="-0.19295">
        <ele>1910.1</ele>
        <time>2017-07-30T10:26:02Z</time>
      </trkpt>
      <trkpt lat="42.59743" lon="-0.19291">
        <ele>1911.4</ele>
        <time>2017-07-30T10:26:05Z</time>
      </trkpt>
      <trkpt lat="42.59741" lon="-0.19288">
        <ele>1912.8</ele>
        <time>2017-07-30T10:26:08Z</time>
      </trkpt>
      <trkpt lat="42.59739" lon="-0.19283">
        <ele>1913.7</ele>
        <time>2017-07-30T10:26:11Z</time>
      </trkpt>
      <trkpt lat="42.59736" lon="-0.1928">
        <ele>1914.6</ele>
        <time>2017-07-30T10:26:14Z</time>
      </trkpt>
      <trkpt lat="42.59734" lon="-0.19277">
        <ele>1915.1</ele>
        <time>2017-07-30T10:26:17Z</time>
      </trkpt>
      <trkpt lat="42.59731" lon="-0.19274">
        <ele>1915.5</ele>
        <time>2017-07-30T10:26:20Z</time>
      </trkpt>
      <trkpt lat="42.59728" lon="-0.1927">
        <ele>1915.8</ele>
        <time>2017-07-30T10:26:23Z</time>
      </trkpt>
      <trkpt lat="42.59726" lon="-0.19267">
        <ele>1915.8</ele>
        <time>2017-07-30T10:26:26Z</time>
      </trkpt>
      <trkpt lat="42.59723" lon="-0.19263">
        <ele>1915.8</ele>
        <time>2017-07-30T10:26:29Z</time>
      </trkpt>
      <trkpt lat="42.5972" lon="-0.1926">
        <ele>1915.9</ele>
        <time>2017-07-30T10:26:32Z</time>
      </trkpt>
      <trkpt lat="42.59718" lon="-0.19257">
        <ele>1916.3</ele>
        <time>2017-07-30T10:26:35Z</time>
      </trkpt>
      <trkpt lat="42.59715" lon="-0.19254">
        <ele>1916.7</ele>
        <time>2017-07-30T10:26:38Z</time>
      </trkpt>
      <trkpt lat="42.59713" lon="-0.19251">
        <ele>1917.2</ele>
        <time>2017-07-30T10:26:41Z</time>
      </trkpt>
      <trkpt lat="42.5971" lon="-0.19249">
        <ele>1917.8</ele>
        <time>2017-07-30T10:26:44Z</time>
      </trkpt>
      <trkpt lat="42.59707" lon="-0.19247">
        <ele>1918.3</ele>
        <time>2017-07-30T10:26:47Z</time>
      </trkpt>
      <trkpt lat="42.59705" lon="-0.19244">
        <ele>1918.6</ele>
        <time>2017-07-30T10:26:50Z</time>
      </trkpt>
      <trkpt lat="42.59702" lon="-0.19242">
        <ele>1918.9</ele>
        <time>2017-07-30T10:26:53Z</time>
      </trkpt>
      <trkpt lat="42.59699" lon="-0.1924">
        <ele>1919.2</ele>
        <time>2017-07-30T10:26:56Z</time>
      </trkpt>
      <trkpt lat="42.59696" lon="-0.19238">
        <ele>1919.5</ele>
        <time>2017-07-30T10:26:59Z</time>
      </trkpt>
      <trkpt lat="42.59693" lon="-0.19236">
        <ele>1919.8</ele>
        <time>2017-07-30T10:27:02Z</time>
      </trkpt>
      <trkpt lat="42.5969" lon="-0.19235">
        <ele>1920.1</ele>
        <time>2017-07-30T10:27:05Z</time>
      </trkpt>
      <trkpt lat="42.59686" lon="-0.19233">
        <ele>1920.4</ele>
        <time>2017-07-30T10:27:08Z</time>
      </trkpt>
      <trkpt lat="42.59683" lon="-0.19231">
        <ele>1920.6</ele>
        <time>2017-07-30T10:27:11Z</time>
      </trkpt>
      <trkpt lat="42.5968" lon="-0.19229">
        <ele>1921</ele>
        <time>2017-07-30T10:27:14Z</time>
      </trkpt>
      <trkpt lat="42.59677" lon="-0.19227">
        <ele>1921.4</ele>
        <time>2017-07-30T10:27:17Z</time>
      </trkpt>
      <trkpt lat="42.59674" lon="-0.19226">
        <ele>1921.9</ele>
        <time>2017-07-30T10:27:20Z</time>
      </trkpt>
      <trkpt lat="42.5967" lon="-0.19226">
        <ele>1922.5</ele>
        <time>2017-07-30T10:27:23Z</time>
      </trkpt>
      <trkpt lat="42.59666" lon="-0.19224">
        <ele>1923</ele>
        <time>2017-07-30T10:27:26Z</time>
      </trkpt>
      <trkpt lat="42.59663" lon="-0.19223">
        <ele>1923.1</ele>
        <time>2017-07-30T10:27:28Z</time>
      </trkpt>
      <trkpt lat="42.5966" lon="-0.19222">
        <ele>1923.3</ele>
        <time>2017-07-30T10:27:30Z</time>
      </trkpt>
      <trkpt lat="42.59657" lon="-0.19221">
        <ele>1923.7</ele>
        <time>2017-07-30T10:27:32Z</time>
      </trkpt>
      <trkpt lat="42.59654" lon="-0.1922">
        <ele>1924.2</ele>
        <time>2017-07-30T10:27:34Z</time>
      </trkpt>
      <trkpt lat="42.59651" lon="-0.19219">
        <ele>1924.9</ele>
        <time>2017-07-30T10:27:36Z</time>
      </trkpt>
      <trkpt lat="42.59647" lon="-0.19219">
        <ele>1925.1</ele>
        <time>2017-07-30T10:27:38Z</time>
      </trkpt>
      <trkpt lat="42.59644" lon="-0.19219">
        <ele>1925.4</ele>
        <time>2017-07-30T10:27:40Z</time>
      </trkpt>
      <trkpt lat="42.5964" lon="-0.1922">
        <ele>1925.5</ele>
        <time>2017-07-30T10:27:42Z</time>
      </trkpt>
      <trkpt lat="42.59637" lon="-0.19221">
        <ele>1925.2</ele>
        <time>2017-07-30T10:27:44Z</time>
      </trkpt>
      <trkpt lat="42.59633" lon="-0.19222">
        <ele>1924.9</ele>
        <time>2017-07-30T10:27:46Z</time>
      </trkpt>
      <trkpt lat="42.5963" lon="-0.19224">
        <ele>1924.6</ele>
        <time>2017-07-30T10:27:48Z</time>
      </trkpt>
      <trkpt lat="42.59627" lon="-0.19226">
        <ele>1924.3</ele>
        <time>2017-07-30T10:27:50Z</time>
      </trkpt>
      <trkpt lat="42.59623" lon="-0.19227">
        <ele>1924</ele>
        <time>2017-07-30T10:27:52Z</time>
      </trkpt>
      <trkpt lat="42.59619" lon="-0.19228">
        <ele>1924</ele>
        <time>2017-07-30T10:27:54Z</time>
      </trkpt>
      <trkpt lat="42.59615" lon="-0.19228">
        <ele>1924</ele>
        <time>2017-07-30T10:27:56Z</time>
      </trkpt>
      <trkpt lat="42.5961" lon="-0.19228">
        <ele>1923.9</ele>
        <time>2017-07-30T10:27:58Z</time>
      </trkpt>
      <trkpt lat="42.59606" lon="-0.19229">
        <ele>1923.9</ele>
        <time>2017-07-30T10:28:00Z</time>
      </trkpt>
      <trkpt lat="42.59602" lon="-0.1923">
        <ele>1923.8</ele>
        <time>2017-07-30T10:28:02Z</time>
      </trkpt>
      <trkpt lat="42.59598" lon="-0.19231">
        <ele>1923.8</ele>
        <time>2017-07-30T10:28:04Z</time>
      </trkpt>
      <trkpt lat="42.59594" lon="-0.19233">
        <ele>1923.8</ele>
        <time>2017-07-30T10:28:06Z</time>
      </trkpt>
      <trkpt lat="42.59589" lon="-0.19234">
        <ele>1923.8</ele>
        <time>2017-07-30T10:28:08Z</time>
      </trkpt>
      <trkpt lat="42.59585" lon="-0.19235">
        <ele>1923.9</ele>
        <time>2017-07-30T10:28:10Z</time>
      </trkpt>
      <trkpt lat="42.59581" lon="-0.19235">
        <ele>1924.2</ele>
        <time>2017-07-30T10:28:12Z</time>
      </trkpt>
      <trkpt lat="42.59577" lon="-0.19234">
        <ele>1924.4</ele>
        <time>2017-07-30T10:28:14Z</time>
      </trkpt>
      <trkpt lat="42.59573" lon="-0.19234">
        <ele>1924.4</ele>
        <time>2017-07-30T10:28:16Z</time>
      </trkpt>
      <trkpt lat="42.59569" lon="-0.19232">
        <ele>1924.4</ele>
        <time>2017-07-30T10:28:18Z</time>
      </trkpt>
      <trkpt lat="42.59566" lon="-0.19231">
        <ele>1924.4</ele>
        <time>2017-07-30T10:28:20Z</time>
      </trkpt>
      <trkpt lat="42.59563" lon="-0.19229">
        <ele>1924.4</ele>
        <time>2017-07-30T10:28:22Z</time>
      </trkpt>
      <trkpt lat="42.59559" lon="-0.19228">
        <ele>1924.4</ele>
        <time>2017-07-30T10:28:24Z</time>
      </trkpt>
      <trkpt lat="42.59555" lon="-0.19227">
        <ele>1924.3</ele>
        <time>2017-07-30T10:28:26Z</time>
      </trkpt>
      <trkpt lat="42.59552" lon="-0.19225">
        <ele>1924.3</ele>
        <time>2017-07-30T10:28:28Z</time>
      </trkpt>
      <trkpt lat="42.59547" lon="-0.19224">
        <ele>1924.2</ele>
        <time>2017-07-30T10:28:30Z</time>
      </trkpt>
      <trkpt lat="42.59543" lon="-0.19224">
        <ele>1924.2</ele>
        <time>2017-07-30T10:28:32Z</time>
      </trkpt>
      <trkpt lat="42.59539" lon="-0.19222">
        <ele>1924.1</ele>
        <time>2017-07-30T10:28:34Z</time>
      </trkpt>
      <trkpt lat="42.59534" lon="-0.19221">
        <ele>1924</ele>
        <time>2017-07-30T10:28:36Z</time>
      </trkpt>
      <trkpt lat="42.5953" lon="-0.19219">
        <ele>1924</ele>
        <time>2017-07-30T10:28:38Z</time>
      </trkpt>
      <trkpt lat="42.59525" lon="-0.19217">
        <ele>1923.8</ele>
        <time>2017-07-30T10:28:40Z</time>
      </trkpt>
      <trkpt lat="42.59522" lon="-0.19216">
        <ele>1923.8</ele>
        <time>2017-07-30T10:28:41Z</time>
      </trkpt>
      <trkpt lat="42.59519" lon="-0.19215">
        <ele>1923.7</ele>
        <time>2017-07-30T10:28:42Z</time>
      </trkpt>
      <trkpt lat="42.59517" lon="-0.19214">
        <ele>1923.6</ele>
        <time>2017-07-30T10:28:43Z</time>
      </trkpt>
      <trkpt lat="42.59514" lon="-0.19214">
        <ele>1923.5</ele>
        <time>2017-07-30T10:28:44Z</time>
      </trkpt>
      <trkpt lat="42.59511" lon="-0.19213">
        <ele>1923.4</ele>
        <time>2017-07-30T10:28:45Z</time>
      </trkpt>
      <trkpt lat="42.59508" lon="-0.19213">
        <ele>1923.4</ele>
        <time>2017-07-30T10:28:46Z</time>
      </trkpt>
      <trkpt lat="42.59505" lon="-0.19213">
        <ele>1923.3</ele>
        <time>2017-07-30T10:28:47Z</time>
      </trkpt>
      <trkpt lat="42.59502" lon="-0.19212">
        <ele>1923.3</ele>
        <time>2017-07-30T10:28:48Z</time>
      </trkpt>
      <trkpt lat="42.59498" lon="-0.19211">
        <ele>1923.2</ele>
        <time>2017-07-30T10:28:49Z</time>
      </trkpt>
      <trkpt lat="42.59495" lon="-0.19211">
        <ele>1923.2</ele>
        <time>2017-07-30T10:28:50Z</time>
      </trkpt>
      <trkpt lat="42.59492" lon="-0.1921">
        <ele>1923.1</ele>
        <time>2017-07-30T10:28:51Z</time>
      </trkpt>
      <trkpt lat="42.59489" lon="-0.1921">
        <ele>1923.1</ele>
        <time>2017-07-30T10:28:52Z</time>
      </trkpt>
      <trkpt lat="42.59486" lon="-0.19209">
        <ele>1923</ele>
        <time>2017-07-30T10:28:53Z</time>
      </trkpt>
      <trkpt lat="42.59483" lon="-0.19209">
        <ele>1923</ele>
        <time>2017-07-30T10:28:54Z</time>
      </trkpt>
      <trkpt lat="42.5948" lon="-0.19208">
        <ele>1922.9</ele>
        <time>2017-07-30T10:28:55Z</time>
      </trkpt>
      <trkpt lat="42.59475" lon="-0.19207">
        <ele>1922.8</ele>
        <time>2017-07-30T10:28:57Z</time>
      </trkpt>
      <trkpt lat="42.59472" lon="-0.19207">
        <ele>1922.8</ele>
        <time>2017-07-30T10:28:58Z</time>
      </trkpt>
      <trkpt lat="42.5947" lon="-0.19207">
        <ele>1922.8</ele>
        <time>2017-07-30T10:28:59Z</time>
      </trkpt>
      <trkpt lat="42.59467" lon="-0.19207">
        <ele>1922.7</ele>
        <time>2017-07-30T10:29:00Z</time>
      </trkpt>
      <trkpt lat="42.59461" lon="-0.19206">
        <ele>1922.6</ele>
        <time>2017-07-30T10:29:02Z</time>
      </trkpt>
      <trkpt lat="42.59459" lon="-0.19206">
        <ele>1922.6</ele>
        <time>2017-07-30T10:29:03Z</time>
      </trkpt>
      <trkpt lat="42.59456" lon="-0.19206">
        <ele>1922.6</ele>
        <time>2017-07-30T10:29:04Z</time>
      </trkpt>
      <trkpt lat="42.59453" lon="-0.19205">
        <ele>1922.5</ele>
        <time>2017-07-30T10:29:05Z</time>
      </trkpt>
      <trkpt lat="42.5945" lon="-0.19205">
        <ele>1922.5</ele>
        <time>2017-07-30T10:29:06Z</time>
      </trkpt>
      <trkpt lat="42.59447" lon="-0.19205">
        <ele>1922.4</ele>
        <time>2017-07-30T10:29:07Z</time>
      </trkpt>
      <trkpt lat="42.59443" lon="-0.19205">
        <ele>1922.4</ele>
        <time>2017-07-30T10:29:08Z</time>
      </trkpt>
      <trkpt lat="42.5944" lon="-0.19205">
        <ele>1922.3</ele>
        <time>2017-07-30T10:29:09Z</time>
      </trkpt>
      <trkpt lat="42.59437" lon="-0.19206">
        <ele>1922.3</ele>
        <time>2017-07-30T10:29:10Z</time>
      </trkpt>
      <trkpt lat="42.59434" lon="-0.19206">
        <ele>1922.2</ele>
        <time>2017-07-30T10:29:11Z</time>
      </trkpt>
      <trkpt lat="42.59431" lon="-0.19206">
        <ele>1922.1</ele>
        <time>2017-07-30T10:29:12Z</time>
      </trkpt>
      <trkpt lat="42.59428" lon="-0.19206">
        <ele>1922.1</ele>
        <time>2017-07-30T10:29:13Z</time>
      </trkpt>
      <trkpt lat="42.59425" lon="-0.19207">
        <ele>1922</ele>
        <time>2017-07-30T10:29:14Z</time>
      </trkpt>
      <trkpt lat="42.59422" lon="-0.19207">
        <ele>1921.9</ele>
        <time>2017-07-30T10:29:15Z</time>
      </trkpt>
      <trkpt lat="42.59419" lon="-0.19207">
        <ele>1921.9</ele>
        <time>2017-07-30T10:29:16Z</time>
      </trkpt>
      <trkpt lat="42.59416" lon="-0.19207">
        <ele>1921.9</ele>
        <time>2017-07-30T10:29:17Z</time>
      </trkpt>
      <trkpt lat="42.59413" lon="-0.19207">
        <ele>1921.8</ele>
        <time>2017-07-30T10:29:18Z</time>
      </trkpt>
      <trkpt lat="42.5941" lon="-0.19207">
        <ele>1921.8</ele>
        <time>2017-07-30T10:29:19Z</time>
      </trkpt>
      <trkpt lat="42.59407" lon="-0.19207">
        <ele>1921.8</ele>
        <time>2017-07-30T10:29:20Z</time>
      </trkpt>
      <trkpt lat="42.59404" lon="-0.19207">
        <ele>1921.8</ele>
        <time>2017-07-30T10:29:21Z</time>
      </trkpt>
      <trkpt lat="42.59401" lon="-0.19208">
        <ele>1921.8</ele>
        <time>2017-07-30T10:29:22Z</time>
      </trkpt>
      <trkpt lat="42.59398" lon="-0.19208">
        <ele>1921.8</ele>
        <time>2017-07-30T10:29:23Z</time>
      </trkpt>
      <trkpt lat="42.59395" lon="-0.19208">
        <ele>1921.8</ele>
        <time>2017-07-30T10:29:24Z</time>
      </trkpt>
      <trkpt lat="42.59393" lon="-0.19209">
        <ele>1921.9</ele>
        <time>2017-07-30T10:29:25Z</time>
      </trkpt>
      <trkpt lat="42.5939" lon="-0.19209">
        <ele>1922</ele>
        <time>2017-07-30T10:29:26Z</time>
      </trkpt>
      <trkpt lat="42.59387" lon="-0.1921">
        <ele>1922.2</ele>
        <time>2017-07-30T10:29:27Z</time>
      </trkpt>
      <trkpt lat="42.59382" lon="-0.19211">
        <ele>1922.3</ele>
        <time>2017-07-30T10:29:29Z</time>
      </trkpt>
      <trkpt lat="42.59379" lon="-0.19211">
        <ele>1922.3</ele>
        <time>2017-07-30T10:29:30Z</time>
      </trkpt>
      <trkpt lat="42.59376" lon="-0.19212">
        <ele>1922.2</ele>
        <time>2017-07-30T10:29:31Z</time>
      </trkpt>
      <trkpt lat="42.59371" lon="-0.19212">
        <ele>1922.2</ele>
        <time>2017-07-30T10:29:33Z</time>
      </trkpt>
      <trkpt lat="42.59366" lon="-0.19213">
        <ele>1922.1</ele>
        <time>2017-07-30T10:29:35Z</time>
      </trkpt>
      <trkpt lat="42.59362" lon="-0.19214">
        <ele>1922.1</ele>
        <time>2017-07-30T10:29:37Z</time>
      </trkpt>
      <trkpt lat="42.59357" lon="-0.19215">
        <ele>1922.1</ele>
        <time>2017-07-30T10:29:39Z</time>
      </trkpt>
      <trkpt lat="42.59352" lon="-0.19215">
        <ele>1922.1</ele>
        <time>2017-07-30T10:29:41Z</time>
      </trkpt>
      <trkpt lat="42.59348" lon="-0.19216">
        <ele>1922.2</ele>
        <time>2017-07-30T10:29:43Z</time>
      </trkpt>
      <trkpt lat="42.59344" lon="-0.19217">
        <ele>1922.4</ele>
        <time>2017-07-30T10:29:45Z</time>
      </trkpt>
      <trkpt lat="42.5934" lon="-0.19218">
        <ele>1922.5</ele>
        <time>2017-07-30T10:29:47Z</time>
      </trkpt>
      <trkpt lat="42.59335" lon="-0.1922">
        <ele>1922.6</ele>
        <time>2017-07-30T10:29:49Z</time>
      </trkpt>
      <trkpt lat="42.59331" lon="-0.19221">
        <ele>1922.5</ele>
        <time>2017-07-30T10:29:51Z</time>
      </trkpt>
      <trkpt lat="42.59327" lon="-0.19223">
        <ele>1922.5</ele>
        <time>2017-07-30T10:29:53Z</time>
      </trkpt>
      <trkpt lat="42.59323" lon="-0.19225">
        <ele>1922.5</ele>
        <time>2017-07-30T10:29:55Z</time>
      </trkpt>
      <trkpt lat="42.59318" lon="-0.19227">
        <ele>1922.4</ele>
        <time>2017-07-30T10:29:57Z</time>
      </trkpt>
      <trkpt lat="42.59314" lon="-0.19229">
        <ele>1922.3</ele>
        <time>2017-07-30T10:29:59Z</time>
      </trkpt>
      <trkpt lat="42.5931" lon="-0.19232">
        <ele>1922.1</ele>
        <time>2017-07-30T10:30:01Z</time>
      </trkpt>
      <trkpt lat="42.59305" lon="-0.19234">
        <ele>1922</ele>
        <time>2017-07-30T10:30:03Z</time>
      </trkpt>
      <trkpt lat="42.59301" lon="-0.19237">
        <ele>1921.8</ele>
        <time>2017-07-30T10:30:05Z</time>
      </trkpt>
      <trkpt lat="42.59297" lon="-0.19239">
        <ele>1921.7</ele>
        <time>2017-07-30T10:30:07Z</time>
      </trkpt>
      <trkpt lat="42.59292" lon="-0.19241">
        <ele>1921.6</ele>
        <time>2017-07-30T10:30:09Z</time>
      </trkpt>
      <trkpt lat="42.59288" lon="-0.19244">
        <ele>1921.5</ele>
        <time>2017-07-30T10:30:11Z</time>
      </trkpt>
      <trkpt lat="42.59283" lon="-0.19246">
        <ele>1921.5</ele>
        <time>2017-07-30T10:30:13Z</time>
      </trkpt>
      <trkpt lat="42.59279" lon="-0.19249">
        <ele>1921.5</ele>
        <time>2017-07-30T10:30:15Z</time>
      </trkpt>
      <trkpt lat="42.59274" lon="-0.19251">
        <ele>1921.5</ele>
        <time>2017-07-30T10:30:17Z</time>
      </trkpt>
      <trkpt lat="42.59269" lon="-0.19254">
        <ele>1921.6</ele>
        <time>2017-07-30T10:30:19Z</time>
      </trkpt>
      <trkpt lat="42.59265" lon="-0.19256">
        <ele>1921.6</ele>
        <time>2017-07-30T10:30:21Z</time>
      </trkpt>
      <trkpt lat="42.59261" lon="-0.19257">
        <ele>1921.9</ele>
        <time>2017-07-30T10:30:23Z</time>
      </trkpt>
      <trkpt lat="42.59256" lon="-0.19259">
        <ele>1922.2</ele>
        <time>2017-07-30T10:30:25Z</time>
      </trkpt>
      <trkpt lat="42.59253" lon="-0.19259">
        <ele>1922.3</ele>
        <time>2017-07-30T10:30:27Z</time>
      </trkpt>
      <trkpt lat="42.59249" lon="-0.1926">
        <ele>1922.3</ele>
        <time>2017-07-30T10:30:29Z</time>
      </trkpt>
      <trkpt lat="42.59245" lon="-0.19261">
        <ele>1922.3</ele>
        <time>2017-07-30T10:30:31Z</time>
      </trkpt>
      <trkpt lat="42.59241" lon="-0.19261">
        <ele>1922.3</ele>
        <time>2017-07-30T10:30:33Z</time>
      </trkpt>
      <trkpt lat="42.59237" lon="-0.19262">
        <ele>1922.3</ele>
        <time>2017-07-30T10:30:35Z</time>
      </trkpt>
      <trkpt lat="42.59233" lon="-0.19263">
        <ele>1922.3</ele>
        <time>2017-07-30T10:30:37Z</time>
      </trkpt>
      <trkpt lat="42.59229" lon="-0.19265">
        <ele>1922.3</ele>
        <time>2017-07-30T10:30:39Z</time>
      </trkpt>
      <trkpt lat="42.59225" lon="-0.19267">
        <ele>1922.2</ele>
        <time>2017-07-30T10:30:41Z</time>
      </trkpt>
      <trkpt lat="42.59221" lon="-0.1927">
        <ele>1922.2</ele>
        <time>2017-07-30T10:30:43Z</time>
      </trkpt>
      <trkpt lat="42.59216" lon="-0.19272">
        <ele>1922.2</ele>
        <time>2017-07-30T10:30:45Z</time>
      </trkpt>
      <trkpt lat="42.59212" lon="-0.19273">
        <ele>1922.2</ele>
        <time>2017-07-30T10:30:47Z</time>
      </trkpt>
      <trkpt lat="42.59207" lon="-0.19273">
        <ele>1922.2</ele>
        <time>2017-07-30T10:30:49Z</time>
      </trkpt>
      <trkpt lat="42.59202" lon="-0.19274">
        <ele>1922.2</ele>
        <time>2017-07-30T10:30:51Z</time>
      </trkpt>
      <trkpt lat="42.59198" lon="-0.19274">
        <ele>1922.3</ele>
        <time>2017-07-30T10:30:53Z</time>
      </trkpt>
      <trkpt lat="42.59194" lon="-0.19275">
        <ele>1922.3</ele>
        <time>2017-07-30T10:30:55Z</time>
      </trkpt>
      <trkpt lat="42.59189" lon="-0.19274">
        <ele>1922.5</ele>
        <time>2017-07-30T10:30:57Z</time>
      </trkpt>
      <trkpt lat="42.59184" lon="-0.19274">
        <ele>1922.8</ele>
        <time>2017-07-30T10:30:59Z</time>
      </trkpt>
      <trkpt lat="42.59179" lon="-0.19272">
        <ele>1923.2</ele>
        <time>2017-07-30T10:31:01Z</time>
      </trkpt>
      <trkpt lat="42.59175" lon="-0.1927">
        <ele>1923.4</ele>
        <time>2017-07-30T10:31:03Z</time>
      </trkpt>
      <trkpt lat="42.59171" lon="-0.19267">
        <ele>1923.7</ele>
        <time>2017-07-30T10:31:05Z</time>
      </trkpt>
      <trkpt lat="42.59166" lon="-0.19264">
        <ele>1924</ele>
        <time>2017-07-30T10:31:07Z</time>
      </trkpt>
      <trkpt lat="42.59164" lon="-0.19262">
        <ele>1924</ele>
        <time>2017-07-30T10:31:08Z</time>
      </trkpt>
      <trkpt lat="42.59161" lon="-0.1926">
        <ele>1924</ele>
        <time>2017-07-30T10:31:09Z</time>
      </trkpt>
      <trkpt lat="42.59157" lon="-0.19258">
        <ele>1924</ele>
        <time>2017-07-30T10:31:10Z</time>
      </trkpt>
      <trkpt lat="42.59154" lon="-0.19256">
        <ele>1924</ele>
        <time>2017-07-30T10:31:11Z</time>
      </trkpt>
      <trkpt lat="42.59151" lon="-0.19254">
        <ele>1924</ele>
        <time>2017-07-30T10:31:12Z</time>
      </trkpt>
      <trkpt lat="42.59148" lon="-0.19252">
        <ele>1924</ele>
        <time>2017-07-30T10:31:13Z</time>
      </trkpt>
      <trkpt lat="42.59146" lon="-0.19249">
        <ele>1923.9</ele>
        <time>2017-07-30T10:31:14Z</time>
      </trkpt>
      <trkpt lat="42.59143" lon="-0.19246">
        <ele>1923.9</ele>
        <time>2017-07-30T10:31:15Z</time>
      </trkpt>
      <trkpt lat="42.59139" lon="-0.19243">
        <ele>1923.8</ele>
        <time>2017-07-30T10:31:16Z</time>
      </trkpt>
      <trkpt lat="42.59136" lon="-0.19239">
        <ele>1923.7</ele>
        <time>2017-07-30T10:31:17Z</time>
      </trkpt>
      <trkpt lat="42.59132" lon="-0.19236">
        <ele>1923.6</ele>
        <time>2017-07-30T10:31:18Z</time>
      </trkpt>
      <trkpt lat="42.59128" lon="-0.19234">
        <ele>1923.5</ele>
        <time>2017-07-30T10:31:19Z</time>
      </trkpt>
      <trkpt lat="42.59124" lon="-0.19233">
        <ele>1923.4</ele>
        <time>2017-07-30T10:31:20Z</time>
      </trkpt>
      <trkpt lat="42.59119" lon="-0.19231">
        <ele>1923</ele>
        <time>2017-07-30T10:31:21Z</time>
      </trkpt>
      <trkpt lat="42.59113" lon="-0.19229">
        <ele>1922.2</ele>
        <time>2017-07-30T10:31:22Z</time>
      </trkpt>
      <trkpt lat="42.59108" lon="-0.19227">
        <ele>1921.5</ele>
        <time>2017-07-30T10:31:23Z</time>
      </trkpt>
      <trkpt lat="42.59103" lon="-0.19224">
        <ele>1921.1</ele>
        <time>2017-07-30T10:31:24Z</time>
      </trkpt>
      <trkpt lat="42.59097" lon="-0.19221">
        <ele>1920.8</ele>
        <time>2017-07-30T10:31:25Z</time>
      </trkpt>
      <trkpt lat="42.59091" lon="-0.19217">
        <ele>1920.6</ele>
        <time>2017-07-30T10:31:26Z</time>
      </trkpt>
      <trkpt lat="42.59086" lon="-0.19214">
        <ele>1920.3</ele>
        <time>2017-07-30T10:31:27Z</time>
      </trkpt>
      <trkpt lat="42.5908" lon="-0.19211">
        <ele>1919.8</ele>
        <time>2017-07-30T10:31:28Z</time>
      </trkpt>
      <trkpt lat="42.59073" lon="-0.19206">
        <ele>1919</ele>
        <time>2017-07-30T10:31:29Z</time>
      </trkpt>
      <trkpt lat="42.59066" lon="-0.19202">
        <ele>1918.2</ele>
        <time>2017-07-30T10:31:30Z</time>
      </trkpt>
      <trkpt lat="42.59059" lon="-0.19198">
        <ele>1917.5</ele>
        <time>2017-07-30T10:31:31Z</time>
      </trkpt>
      <trkpt lat="42.59052" lon="-0.19195">
        <ele>1916.8</ele>
        <time>2017-07-30T10:31:32Z</time>
      </trkpt>
      <trkpt lat="42.59044" lon="-0.19192">
        <ele>1916.1</ele>
        <time>2017-07-30T10:31:33Z</time>
      </trkpt>
      <trkpt lat="42.59038" lon="-0.19189">
        <ele>1915.2</ele>
        <time>2017-07-30T10:31:34Z</time>
      </trkpt>
      <trkpt lat="42.59032" lon="-0.19185">
        <ele>1914.4</ele>
        <time>2017-07-30T10:31:35Z</time>
      </trkpt>
      <trkpt lat="42.59026" lon="-0.1918">
        <ele>1913.6</ele>
        <time>2017-07-30T10:31:36Z</time>
      </trkpt>
      <trkpt lat="42.59021" lon="-0.19174">
        <ele>1911.9</ele>
        <time>2017-07-30T10:31:37Z</time>
      </trkpt>
      <trkpt lat="42.59015" lon="-0.19168">
        <ele>1909.3</ele>
        <time>2017-07-30T10:31:38Z</time>
      </trkpt>
      <trkpt lat="42.59008" lon="-0.19163">
        <ele>1906</ele>
        <time>2017-07-30T10:31:39Z</time>
      </trkpt>
      <trkpt lat="42.58999" lon="-0.19157">
        <ele>1903.1</ele>
        <time>2017-07-30T10:31:40Z</time>
      </trkpt>
      <trkpt lat="42.5899" lon="-0.19151">
        <ele>1902.3</ele>
        <time>2017-07-30T10:31:41Z</time>
      </trkpt>
      <trkpt lat="42.58981" lon="-0.19147">
        <ele>1902.3</ele>
        <time>2017-07-30T10:31:42Z</time>
      </trkpt>
      <trkpt lat="42.58972" lon="-0.19143">
        <ele>1902.5</ele>
        <time>2017-07-30T10:31:43Z</time>
      </trkpt>
      <trkpt lat="42.58966" lon="-0.19141">
        <ele>1902.9</ele>
        <time>2017-07-30T10:31:44Z</time>
      </trkpt>
      <trkpt lat="42.5896" lon="-0.1914">
        <ele>1903.2</ele>
        <time>2017-07-30T10:31:45Z</time>
      </trkpt>
      <trkpt lat="42.58957" lon="-0.19138">
        <ele>1903.4</ele>
        <time>2017-07-30T10:31:46Z</time>
      </trkpt>
      <trkpt lat="42.58954" lon="-0.19137">
        <ele>1903.7</ele>
        <time>2017-07-30T10:31:47Z</time>
      </trkpt>
      <trkpt lat="42.5895" lon="-0.19135">
        <ele>1909.8</ele>
        <time>2017-07-30T10:36:32Z</time>
      </trkpt>
      <trkpt lat="42.58946" lon="-0.19132">
        <ele>1915.6</ele>
        <time>2017-07-30T10:36:34Z</time>
      </trkpt>
      <trkpt lat="42.58943" lon="-0.1913">
        <ele>1915.9</ele>
        <time>2017-07-30T10:36:36Z</time>
      </trkpt>
      <trkpt lat="42.58939" lon="-0.19128">
        <ele>1916.1</ele>
        <time>2017-07-30T10:36:38Z</time>
      </trkpt>
      <trkpt lat="42.58936" lon="-0.19128">
        <ele>1916.1</ele>
        <time>2017-07-30T10:36:40Z</time>
      </trkpt>
      <trkpt lat="42.58933" lon="-0.19126">
        <ele>1915.9</ele>
        <time>2017-07-30T10:36:43Z</time>
      </trkpt>
      <trkpt lat="42.5893" lon="-0.19123">
        <ele>1915.7</ele>
        <time>2017-07-30T10:36:45Z</time>
      </trkpt>
      <trkpt lat="42.58929" lon="-0.1912">
        <ele>1915.3</ele>
        <time>2017-07-30T10:36:50Z</time>
      </trkpt>
      <trkpt lat="42.58928" lon="-0.19117">
        <ele>1914.7</ele>
        <time>2017-07-30T10:36:55Z</time>
      </trkpt>
      <trkpt lat="42.5893" lon="-0.19114">
        <ele>1914.1</ele>
        <time>2017-07-30T10:37:03Z</time>
      </trkpt>
      <trkpt lat="42.58932" lon="-0.19112">
        <ele>1913.4</ele>
        <time>2017-07-30T10:37:06Z</time>
      </trkpt>
      <trkpt lat="42.58935" lon="-0.1911">
        <ele>1912.7</ele>
        <time>2017-07-30T10:37:08Z</time>
      </trkpt>
      <trkpt lat="42.58939" lon="-0.19108">
        <ele>1912.1</ele>
        <time>2017-07-30T10:37:10Z</time>
      </trkpt>
      <trkpt lat="42.58945" lon="-0.19107">
        <ele>1910.7</ele>
        <time>2017-07-30T10:37:12Z</time>
      </trkpt>
      <trkpt lat="42.58948" lon="-0.19107">
        <ele>1909.5</ele>
        <time>2017-07-30T10:37:13Z</time>
      </trkpt>
      <trkpt lat="42.5895" lon="-0.19106">
        <ele>1908.4</ele>
        <time>2017-07-30T10:37:14Z</time>
      </trkpt>
      <trkpt lat="42.58955" lon="-0.19106">
        <ele>1906.8</ele>
        <time>2017-07-30T10:37:16Z</time>
      </trkpt>
      <trkpt lat="42.58958" lon="-0.19106">
        <ele>1905.3</ele>
        <time>2017-07-30T10:37:18Z</time>
      </trkpt>
      <trkpt lat="42.58964" lon="-0.19105">
        <ele>1902.6</ele>
        <time>2017-07-30T10:37:20Z</time>
      </trkpt>
      <trkpt lat="42.58966" lon="-0.19104">
        <ele>1901.5</ele>
        <time>2017-07-30T10:37:21Z</time>
      </trkpt>
      <trkpt lat="42.58969" lon="-0.19104">
        <ele>1900.7</ele>
        <time>2017-07-30T10:37:22Z</time>
      </trkpt>
      <trkpt lat="42.58974" lon="-0.19102">
        <ele>1899.2</ele>
        <time>2017-07-30T10:37:24Z</time>
      </trkpt>
      <trkpt lat="42.58979" lon="-0.19101">
        <ele>1897.3</ele>
        <time>2017-07-30T10:37:26Z</time>
      </trkpt>
      <trkpt lat="42.58984" lon="-0.19099">
        <ele>1896.6</ele>
        <time>2017-07-30T10:37:28Z</time>
      </trkpt>
      <trkpt lat="42.58989" lon="-0.19097">
        <ele>1896.5</ele>
        <time>2017-07-30T10:37:30Z</time>
      </trkpt>
      <trkpt lat="42.58993" lon="-0.19096">
        <ele>1896</ele>
        <time>2017-07-30T10:37:32Z</time>
      </trkpt>
      <trkpt lat="42.58998" lon="-0.19094">
        <ele>1895.5</ele>
        <time>2017-07-30T10:37:34Z</time>
      </trkpt>
      <trkpt lat="42.59001" lon="-0.19093">
        <ele>1895.5</ele>
        <time>2017-07-30T10:37:35Z</time>
      </trkpt>
      <trkpt lat="42.59003" lon="-0.19091">
        <ele>1895.4</ele>
        <time>2017-07-30T10:37:36Z</time>
      </trkpt>
      <trkpt lat="42.59008" lon="-0.19089">
        <ele>1895.2</ele>
        <time>2017-07-30T10:37:38Z</time>
      </trkpt>
      <trkpt lat="42.59013" lon="-0.19087">
        <ele>1894.9</ele>
        <time>2017-07-30T10:37:40Z</time>
      </trkpt>
      <trkpt lat="42.59016" lon="-0.19086">
        <ele>1894.8</ele>
        <time>2017-07-30T10:37:41Z</time>
      </trkpt>
      <trkpt lat="42.59018" lon="-0.19085">
        <ele>1894.8</ele>
        <time>2017-07-30T10:37:42Z</time>
      </trkpt>
      <trkpt lat="42.59021" lon="-0.19083">
        <ele>1894.7</ele>
        <time>2017-07-30T10:37:43Z</time>
      </trkpt>
      <trkpt lat="42.59024" lon="-0.19082">
        <ele>1894.7</ele>
        <time>2017-07-30T10:37:44Z</time>
      </trkpt>
      <trkpt lat="42.59027" lon="-0.1908">
        <ele>1894.8</ele>
        <time>2017-07-30T10:37:45Z</time>
      </trkpt>
      <trkpt lat="42.5903" lon="-0.19079">
        <ele>1894.9</ele>
        <time>2017-07-30T10:37:46Z</time>
      </trkpt>
      <trkpt lat="42.59033" lon="-0.19077">
        <ele>1894.4</ele>
        <time>2017-07-30T10:37:47Z</time>
      </trkpt>
      <trkpt lat="42.59036" lon="-0.19076">
        <ele>1893.9</ele>
        <time>2017-07-30T10:37:48Z</time>
      </trkpt>
      <trkpt lat="42.59039" lon="-0.19074">
        <ele>1893.2</ele>
        <time>2017-07-30T10:37:49Z</time>
      </trkpt>
      <trkpt lat="42.59042" lon="-0.19073">
        <ele>1892.2</ele>
        <time>2017-07-30T10:37:50Z</time>
      </trkpt>
      <trkpt lat="42.59045" lon="-0.19072">
        <ele>1891.4</ele>
        <time>2017-07-30T10:37:51Z</time>
      </trkpt>
      <trkpt lat="42.59049" lon="-0.1907">
        <ele>1890.4</ele>
        <time>2017-07-30T10:37:53Z</time>
      </trkpt>
      <trkpt lat="42.59052" lon="-0.19069">
        <ele>1889.5</ele>
        <time>2017-07-30T10:37:55Z</time>
      </trkpt>
      <trkpt lat="42.59056" lon="-0.19066">
        <ele>1888.4</ele>
        <time>2017-07-30T10:37:57Z</time>
      </trkpt>
      <trkpt lat="42.5906" lon="-0.19062">
        <ele>1887.2</ele>
        <time>2017-07-30T10:37:59Z</time>
      </trkpt>
      <trkpt lat="42.59063" lon="-0.19058">
        <ele>1885.7</ele>
        <time>2017-07-30T10:38:01Z</time>
      </trkpt>
      <trkpt lat="42.59067" lon="-0.19055">
        <ele>1884.2</ele>
        <time>2017-07-30T10:38:03Z</time>
      </trkpt>
      <trkpt lat="42.59071" lon="-0.19052">
        <ele>1883</ele>
        <time>2017-07-30T10:38:05Z</time>
      </trkpt>
      <trkpt lat="42.59076" lon="-0.1905">
        <ele>1881.8</ele>
        <time>2017-07-30T10:38:07Z</time>
      </trkpt>
      <trkpt lat="42.59079" lon="-0.19047">
        <ele>1880.7</ele>
        <time>2017-07-30T10:38:09Z</time>
      </trkpt>
      <trkpt lat="42.59082" lon="-0.19044">
        <ele>1879.7</ele>
        <time>2017-07-30T10:38:11Z</time>
      </trkpt>
      <trkpt lat="42.59086" lon="-0.19042">
        <ele>1878.8</ele>
        <time>2017-07-30T10:38:13Z</time>
      </trkpt>
      <trkpt lat="42.59089" lon="-0.19039">
        <ele>1877.9</ele>
        <time>2017-07-30T10:38:15Z</time>
      </trkpt>
      <trkpt lat="42.59092" lon="-0.19035">
        <ele>1876.2</ele>
        <time>2017-07-30T10:38:17Z</time>
      </trkpt>
      <trkpt lat="42.59096" lon="-0.19032">
        <ele>1875</ele>
        <time>2017-07-30T10:38:19Z</time>
      </trkpt>
      <trkpt lat="42.59101" lon="-0.19029">
        <ele>1875.7</ele>
        <time>2017-07-30T10:38:21Z</time>
      </trkpt>
      <trkpt lat="42.59104" lon="-0.19028">
        <ele>1876</ele>
        <time>2017-07-30T10:38:22Z</time>
      </trkpt>
      <trkpt lat="42.59106" lon="-0.19027">
        <ele>1876.1</ele>
        <time>2017-07-30T10:38:23Z</time>
      </trkpt>
      <trkpt lat="42.59111" lon="-0.19026">
        <ele>1876.2</ele>
        <time>2017-07-30T10:38:25Z</time>
      </trkpt>
      <trkpt lat="42.59114" lon="-0.19025">
        <ele>1876.1</ele>
        <time>2017-07-30T10:38:27Z</time>
      </trkpt>
      <trkpt lat="42.59117" lon="-0.19023">
        <ele>1876</ele>
        <time>2017-07-30T10:38:30Z</time>
      </trkpt>
      <trkpt lat="42.5912" lon="-0.19021">
        <ele>1875.6</ele>
        <time>2017-07-30T10:38:32Z</time>
      </trkpt>
      <trkpt lat="42.59123" lon="-0.19017">
        <ele>1874</ele>
        <time>2017-07-30T10:38:34Z</time>
      </trkpt>
      <trkpt lat="42.59125" lon="-0.19013">
        <ele>1872.6</ele>
        <time>2017-07-30T10:38:36Z</time>
      </trkpt>
      <trkpt lat="42.59128" lon="-0.19009">
        <ele>1870.7</ele>
        <time>2017-07-30T10:38:38Z</time>
      </trkpt>
      <trkpt lat="42.59131" lon="-0.19005">
        <ele>1869</ele>
        <time>2017-07-30T10:38:40Z</time>
      </trkpt>
      <trkpt lat="42.59133" lon="-0.18999">
        <ele>1867.2</ele>
        <time>2017-07-30T10:38:42Z</time>
      </trkpt>
      <trkpt lat="42.59135" lon="-0.18993">
        <ele>1865.3</ele>
        <time>2017-07-30T10:38:44Z</time>
      </trkpt>
      <trkpt lat="42.59137" lon="-0.18988">
        <ele>1863.7</ele>
        <time>2017-07-30T10:38:46Z</time>
      </trkpt>
      <trkpt lat="42.59139" lon="-0.18985">
        <ele>1862.5</ele>
        <time>2017-07-30T10:38:48Z</time>
      </trkpt>
      <trkpt lat="42.5914" lon="-0.18979">
        <ele>1860.9</ele>
        <time>2017-07-30T10:38:50Z</time>
      </trkpt>
      <trkpt lat="42.59142" lon="-0.18974">
        <ele>1859.5</ele>
        <time>2017-07-30T10:38:52Z</time>
      </trkpt>
      <trkpt lat="42.59144" lon="-0.18971">
        <ele>1858.5</ele>
        <time>2017-07-30T10:38:54Z</time>
      </trkpt>
      <trkpt lat="42.59146" lon="-0.18967">
        <ele>1857.5</ele>
        <time>2017-07-30T10:38:56Z</time>
      </trkpt>
      <trkpt lat="42.59148" lon="-0.18965">
        <ele>1856.9</ele>
        <time>2017-07-30T10:39:03Z</time>
      </trkpt>
      <trkpt lat="42.5915" lon="-0.18962">
        <ele>1856.3</ele>
        <time>2017-07-30T10:39:11Z</time>
      </trkpt>
      <trkpt lat="42.59153" lon="-0.18962">
        <ele>1855.7</ele>
        <time>2017-07-30T10:39:21Z</time>
      </trkpt>
      <trkpt lat="42.59155" lon="-0.18958">
        <ele>1855</ele>
        <time>2017-07-30T10:39:25Z</time>
      </trkpt>
      <trkpt lat="42.59158" lon="-0.18954">
        <ele>1854.2</ele>
        <time>2017-07-30T10:39:27Z</time>
      </trkpt>
      <trkpt lat="42.59161" lon="-0.18951">
        <ele>1854.1</ele>
        <time>2017-07-30T10:39:29Z</time>
      </trkpt>
      <trkpt lat="42.59164" lon="-0.18949">
        <ele>1854.2</ele>
        <time>2017-07-30T10:39:31Z</time>
      </trkpt>
      <trkpt lat="42.59167" lon="-0.18948">
        <ele>1854.2</ele>
        <time>2017-07-30T10:39:33Z</time>
      </trkpt>
      <trkpt lat="42.59169" lon="-0.18946">
        <ele>1853.8</ele>
        <time>2017-07-30T10:39:35Z</time>
      </trkpt>
      <trkpt lat="42.59171" lon="-0.18942">
        <ele>1853.4</ele>
        <time>2017-07-30T10:39:37Z</time>
      </trkpt>
      <trkpt lat="42.59173" lon="-0.18938">
        <ele>1852.8</ele>
        <time>2017-07-30T10:39:39Z</time>
      </trkpt>
      <trkpt lat="42.59176" lon="-0.18935">
        <ele>1851.9</ele>
        <time>2017-07-30T10:39:41Z</time>
      </trkpt>
      <trkpt lat="42.59179" lon="-0.18932">
        <ele>1851.3</ele>
        <time>2017-07-30T10:39:43Z</time>
      </trkpt>
      <trkpt lat="42.59183" lon="-0.1893">
        <ele>1852.1</ele>
        <time>2017-07-30T10:39:45Z</time>
      </trkpt>
      <trkpt lat="42.59186" lon="-0.18929">
        <ele>1852.9</ele>
        <time>2017-07-30T10:39:47Z</time>
      </trkpt>
      <trkpt lat="42.5919" lon="-0.18927">
        <ele>1852.5</ele>
        <time>2017-07-30T10:39:49Z</time>
      </trkpt>
      <trkpt lat="42.59195" lon="-0.18925">
        <ele>1851.5</ele>
        <time>2017-07-30T10:39:51Z</time>
      </trkpt>
      <trkpt lat="42.59198" lon="-0.18925">
        <ele>1850.6</ele>
        <time>2017-07-30T10:39:53Z</time>
      </trkpt>
      <trkpt lat="42.59201" lon="-0.18924">
        <ele>1849.4</ele>
        <time>2017-07-30T10:40:12Z</time>
      </trkpt>
      <trkpt lat="42.59205" lon="-0.1892">
        <ele>1847.2</ele>
        <time>2017-07-30T10:40:14Z</time>
      </trkpt>
      <trkpt lat="42.59209" lon="-0.18918">
        <ele>1845.3</ele>
        <time>2017-07-30T10:40:16Z</time>
      </trkpt>
      <trkpt lat="42.59212" lon="-0.18917">
        <ele>1843.8</ele>
        <time>2017-07-30T10:40:18Z</time>
      </trkpt>
      <trkpt lat="42.59213" lon="-0.18913">
        <ele>1842.2</ele>
        <time>2017-07-30T10:40:31Z</time>
      </trkpt>
      <trkpt lat="42.59215" lon="-0.1891">
        <ele>1840.5</ele>
        <time>2017-07-30T10:40:42Z</time>
      </trkpt>
      <trkpt lat="42.59216" lon="-0.18906">
        <ele>1838.9</ele>
        <time>2017-07-30T10:40:47Z</time>
      </trkpt>
      <trkpt lat="42.59217" lon="-0.18902">
        <ele>1836.2</ele>
        <time>2017-07-30T10:40:51Z</time>
      </trkpt>
      <trkpt lat="42.59219" lon="-0.18898">
        <ele>1833.9</ele>
        <time>2017-07-30T10:40:54Z</time>
      </trkpt>
      <trkpt lat="42.5922" lon="-0.18894">
        <ele>1831.6</ele>
        <time>2017-07-30T10:40:56Z</time>
      </trkpt>
      <trkpt lat="42.59222" lon="-0.18891">
        <ele>1830.7</ele>
        <time>2017-07-30T10:40:58Z</time>
      </trkpt>
      <trkpt lat="42.59224" lon="-0.18887">
        <ele>1829.7</ele>
        <time>2017-07-30T10:41:02Z</time>
      </trkpt>
      <trkpt lat="42.59224" lon="-0.18882">
        <ele>1828.6</ele>
        <time>2017-07-30T10:41:06Z</time>
      </trkpt>
      <trkpt lat="42.59223" lon="-0.18877">
        <ele>1827.5</ele>
        <time>2017-07-30T10:41:08Z</time>
      </trkpt>
      <trkpt lat="42.59224" lon="-0.18872">
        <ele>1826.5</ele>
        <time>2017-07-30T10:41:10Z</time>
      </trkpt>
      <trkpt lat="42.59226" lon="-0.18868">
        <ele>1825.4</ele>
        <time>2017-07-30T10:41:14Z</time>
      </trkpt>
      <trkpt lat="42.59228" lon="-0.18866">
        <ele>1824.5</ele>
        <time>2017-07-30T10:41:19Z</time>
      </trkpt>
      <trkpt lat="42.59229" lon="-0.18862">
        <ele>1823.4</ele>
        <time>2017-07-30T10:41:21Z</time>
      </trkpt>
      <trkpt lat="42.59231" lon="-0.18856">
        <ele>1821.9</ele>
        <time>2017-07-30T10:41:23Z</time>
      </trkpt>
      <trkpt lat="42.59232" lon="-0.18851">
        <ele>1820.9</ele>
        <time>2017-07-30T10:41:25Z</time>
      </trkpt>
      <trkpt lat="42.59234" lon="-0.18848">
        <ele>1820.1</ele>
        <time>2017-07-30T10:41:31Z</time>
      </trkpt>
      <trkpt lat="42.59237" lon="-0.18842">
        <ele>1817.4</ele>
        <time>2017-07-30T10:41:33Z</time>
      </trkpt>
      <trkpt lat="42.59239" lon="-0.18839">
        <ele>1815.6</ele>
        <time>2017-07-30T10:41:34Z</time>
      </trkpt>
      <trkpt lat="42.5924" lon="-0.18834">
        <ele>1813.5</ele>
        <time>2017-07-30T10:41:36Z</time>
      </trkpt>
      <trkpt lat="42.5924" lon="-0.1883">
        <ele>1811.9</ele>
        <time>2017-07-30T10:41:39Z</time>
      </trkpt>
      <trkpt lat="42.59237" lon="-0.18827">
        <ele>1809.5</ele>
        <time>2017-07-30T10:41:41Z</time>
      </trkpt>
      <trkpt lat="42.59235" lon="-0.18822">
        <ele>1806.9</ele>
        <time>2017-07-30T10:41:43Z</time>
      </trkpt>
      <trkpt lat="42.59237" lon="-0.18818">
        <ele>1803.7</ele>
        <time>2017-07-30T10:41:50Z</time>
      </trkpt>
      <trkpt lat="42.59238" lon="-0.18815">
        <ele>1801</ele>
        <time>2017-07-30T10:41:52Z</time>
      </trkpt>
      <trkpt lat="42.59241" lon="-0.18811">
        <ele>1801.6</ele>
        <time>2017-07-30T10:41:54Z</time>
      </trkpt>
      <trkpt lat="42.59243" lon="-0.18807">
        <ele>1802.7</ele>
        <time>2017-07-30T10:41:56Z</time>
      </trkpt>
      <trkpt lat="42.59246" lon="-0.18802">
        <ele>1804.7</ele>
        <time>2017-07-30T10:41:58Z</time>
      </trkpt>
      <trkpt lat="42.59248" lon="-0.18797">
        <ele>1806.4</ele>
        <time>2017-07-30T10:42:00Z</time>
      </trkpt>
      <trkpt lat="42.59249" lon="-0.18793">
        <ele>1806.7</ele>
        <time>2017-07-30T10:42:02Z</time>
      </trkpt>
      <trkpt lat="42.59251" lon="-0.18789">
        <ele>1806.9</ele>
        <time>2017-07-30T10:42:04Z</time>
      </trkpt>
      <trkpt lat="42.59253" lon="-0.18786">
        <ele>1808.2</ele>
        <time>2017-07-30T10:42:12Z</time>
      </trkpt>
      <trkpt lat="42.59255" lon="-0.18782">
        <ele>1810.2</ele>
        <time>2017-07-30T10:42:14Z</time>
      </trkpt>
      <trkpt lat="42.59258" lon="-0.18777">
        <ele>1812.4</ele>
        <time>2017-07-30T10:42:16Z</time>
      </trkpt>
      <trkpt lat="42.59261" lon="-0.18774">
        <ele>1813.7</ele>
        <time>2017-07-30T10:42:17Z</time>
      </trkpt>
      <trkpt lat="42.59264" lon="-0.18771">
        <ele>1815.4</ele>
        <time>2017-07-30T10:42:18Z</time>
      </trkpt>
      <trkpt lat="42.59266" lon="-0.18768">
        <ele>1816.9</ele>
        <time>2017-07-30T10:42:19Z</time>
      </trkpt>
      <trkpt lat="42.59269" lon="-0.18763">
        <ele>1816.1</ele>
        <time>2017-07-30T10:42:21Z</time>
      </trkpt>
      <trkpt lat="42.5927" lon="-0.18759">
        <ele>1815.1</ele>
        <time>2017-07-30T10:42:26Z</time>
      </trkpt>
      <trkpt lat="42.59271" lon="-0.18755">
        <ele>1814.7</ele>
        <time>2017-07-30T10:42:30Z</time>
      </trkpt>
      <trkpt lat="42.59273" lon="-0.18753">
        <ele>1814.4</ele>
        <time>2017-07-30T10:42:35Z</time>
      </trkpt>
      <trkpt lat="42.59274" lon="-0.18749">
        <ele>1814.2</ele>
        <time>2017-07-30T10:42:38Z</time>
      </trkpt>
      <trkpt lat="42.59275" lon="-0.18743">
        <ele>1813.4</ele>
        <time>2017-07-30T10:42:40Z</time>
      </trkpt>
      <trkpt lat="42.59276" lon="-0.18736">
        <ele>1812.3</ele>
        <time>2017-07-30T10:42:42Z</time>
      </trkpt>
      <trkpt lat="42.59276" lon="-0.1873">
        <ele>1811</ele>
        <time>2017-07-30T10:42:44Z</time>
      </trkpt>
      <trkpt lat="42.59274" lon="-0.18725">
        <ele>1810</ele>
        <time>2017-07-30T10:42:46Z</time>
      </trkpt>
      <trkpt lat="42.59273" lon="-0.18721">
        <ele>1809.3</ele>
        <time>2017-07-30T10:42:48Z</time>
      </trkpt>
      <trkpt lat="42.59272" lon="-0.18718">
        <ele>1808.6</ele>
        <time>2017-07-30T10:42:50Z</time>
      </trkpt>
      <trkpt lat="42.59271" lon="-0.18714">
        <ele>1807.9</ele>
        <time>2017-07-30T10:42:53Z</time>
      </trkpt>
      <trkpt lat="42.59271" lon="-0.18709">
        <ele>1807.4</ele>
        <time>2017-07-30T10:42:55Z</time>
      </trkpt>
      <trkpt lat="42.59272" lon="-0.18703">
        <ele>1806.4</ele>
        <time>2017-07-30T10:42:57Z</time>
      </trkpt>
      <trkpt lat="42.59272" lon="-0.187">
        <ele>1805.6</ele>
        <time>2017-07-30T10:43:03Z</time>
      </trkpt>
      <trkpt lat="42.59273" lon="-0.18696">
        <ele>1805.5</ele>
        <time>2017-07-30T10:43:08Z</time>
      </trkpt>
      <trkpt lat="42.59275" lon="-0.18693">
        <ele>1805.6</ele>
        <time>2017-07-30T10:43:22Z</time>
      </trkpt>
      <trkpt lat="42.59276" lon="-0.18688">
        <ele>1805.8</ele>
        <time>2017-07-30T10:43:26Z</time>
      </trkpt>
      <trkpt lat="42.59277" lon="-0.18685">
        <ele>1805.9</ele>
        <time>2017-07-30T10:43:29Z</time>
      </trkpt>
      <trkpt lat="42.59279" lon="-0.18681">
        <ele>1806</ele>
        <time>2017-07-30T10:43:31Z</time>
      </trkpt>
      <trkpt lat="42.59281" lon="-0.18677">
        <ele>1806</ele>
        <time>2017-07-30T10:43:33Z</time>
      </trkpt>
      <trkpt lat="42.59283" lon="-0.18672">
        <ele>1805.9</ele>
        <time>2017-07-30T10:43:36Z</time>
      </trkpt>
      <trkpt lat="42.59283" lon="-0.18668">
        <ele>1805.8</ele>
        <time>2017-07-30T10:43:40Z</time>
      </trkpt>
      <trkpt lat="42.59285" lon="-0.18664">
        <ele>1805.7</ele>
        <time>2017-07-30T10:43:42Z</time>
      </trkpt>
      <trkpt lat="42.59287" lon="-0.18659">
        <ele>1805.7</ele>
        <time>2017-07-30T10:43:44Z</time>
      </trkpt>
      <trkpt lat="42.5929" lon="-0.18654">
        <ele>1804.7</ele>
        <time>2017-07-30T10:43:46Z</time>
      </trkpt>
      <trkpt lat="42.59292" lon="-0.1865">
        <ele>1803.8</ele>
        <time>2017-07-30T10:43:48Z</time>
      </trkpt>
      <trkpt lat="42.59293" lon="-0.18646">
        <ele>1804.2</ele>
        <time>2017-07-30T10:43:51Z</time>
      </trkpt>
      <trkpt lat="42.59296" lon="-0.18647">
        <ele>1804.7</ele>
        <time>2017-07-30T10:44:01Z</time>
      </trkpt>
      <trkpt lat="42.59299" lon="-0.18643">
        <ele>1805.1</ele>
        <time>2017-07-30T10:44:07Z</time>
      </trkpt>
      <trkpt lat="42.59301" lon="-0.1864">
        <ele>1804.9</ele>
        <time>2017-07-30T10:44:11Z</time>
      </trkpt>
      <trkpt lat="42.59302" lon="-0.18637">
        <ele>1804.6</ele>
        <time>2017-07-30T10:44:14Z</time>
      </trkpt>
      <trkpt lat="42.59305" lon="-0.18638">
        <ele>1804.4</ele>
        <time>2017-07-30T10:44:26Z</time>
      </trkpt>
      <trkpt lat="42.59308" lon="-0.18636">
        <ele>1804.6</ele>
        <time>2017-07-30T10:44:34Z</time>
      </trkpt>
      <trkpt lat="42.59314" lon="-0.18627">
        <ele>1802.6</ele>
        <time>2017-07-30T10:45:06Z</time>
      </trkpt>
      <trkpt lat="42.59317" lon="-0.18622">
        <ele>1801.8</ele>
        <time>2017-07-30T10:45:08Z</time>
      </trkpt>
      <trkpt lat="42.59321" lon="-0.18618">
        <ele>1804.3</ele>
        <time>2017-07-30T10:45:10Z</time>
      </trkpt>
      <trkpt lat="42.59326" lon="-0.18615">
        <ele>1806.2</ele>
        <time>2017-07-30T10:45:12Z</time>
      </trkpt>
      <trkpt lat="42.59328" lon="-0.18614">
        <ele>1806.8</ele>
        <time>2017-07-30T10:45:13Z</time>
      </trkpt>
      <trkpt lat="42.59331" lon="-0.18613">
        <ele>1807.3</ele>
        <time>2017-07-30T10:45:14Z</time>
      </trkpt>
      <trkpt lat="42.59336" lon="-0.18611">
        <ele>1807.5</ele>
        <time>2017-07-30T10:45:16Z</time>
      </trkpt>
      <trkpt lat="42.5934" lon="-0.18609">
        <ele>1807.2</ele>
        <time>2017-07-30T10:45:18Z</time>
      </trkpt>
      <trkpt lat="42.59345" lon="-0.18608">
        <ele>1807.6</ele>
        <time>2017-07-30T10:45:20Z</time>
      </trkpt>
      <trkpt lat="42.59347" lon="-0.18608">
        <ele>1808.1</ele>
        <time>2017-07-30T10:45:22Z</time>
      </trkpt>
      <trkpt lat="42.5935" lon="-0.1861">
        <ele>1808.8</ele>
        <time>2017-07-30T10:45:25Z</time>
      </trkpt>
      <trkpt lat="42.59352" lon="-0.18612">
        <ele>1810</ele>
        <time>2017-07-30T10:45:39Z</time>
      </trkpt>
      <trkpt lat="42.59355" lon="-0.18611">
        <ele>1811.2</ele>
        <time>2017-07-30T10:45:51Z</time>
      </trkpt>
      <trkpt lat="42.59358" lon="-0.18609">
        <ele>1810.8</ele>
        <time>2017-07-30T10:46:04Z</time>
      </trkpt>
      <trkpt lat="42.59361" lon="-0.18608">
        <ele>1810.2</ele>
        <time>2017-07-30T10:46:11Z</time>
      </trkpt>
      <trkpt lat="42.59363" lon="-0.18604">
        <ele>1808.8</ele>
        <time>2017-07-30T10:46:15Z</time>
      </trkpt>
      <trkpt lat="42.59365" lon="-0.18602">
        <ele>1807</ele>
        <time>2017-07-30T10:46:20Z</time>
      </trkpt>
      <trkpt lat="42.59366" lon="-0.18598">
        <ele>1805.2</ele>
        <time>2017-07-30T10:46:26Z</time>
      </trkpt>
      <trkpt lat="42.59367" lon="-0.18593">
        <ele>1801.7</ele>
        <time>2017-07-30T10:46:30Z</time>
      </trkpt>
      <trkpt lat="42.59368" lon="-0.1859">
        <ele>1799</ele>
        <time>2017-07-30T10:46:34Z</time>
      </trkpt>
      <trkpt lat="42.5937" lon="-0.18587">
        <ele>1796.3</ele>
        <time>2017-07-30T10:46:43Z</time>
      </trkpt>
      <trkpt lat="42.5937" lon="-0.18583">
        <ele>1795.2</ele>
        <time>2017-07-30T10:46:48Z</time>
      </trkpt>
      <trkpt lat="42.59372" lon="-0.1858">
        <ele>1793.9</ele>
        <time>2017-07-30T10:46:52Z</time>
      </trkpt>
      <trkpt lat="42.59373" lon="-0.18575">
        <ele>1792.6</ele>
        <time>2017-07-30T10:46:56Z</time>
      </trkpt>
      <trkpt lat="42.59373" lon="-0.1857">
        <ele>1791.3</ele>
        <time>2017-07-30T10:46:58Z</time>
      </trkpt>
      <trkpt lat="42.59374" lon="-0.18565">
        <ele>1789.9</ele>
        <time>2017-07-30T10:47:00Z</time>
      </trkpt>
      <trkpt lat="42.59376" lon="-0.18561">
        <ele>1788.3</ele>
        <time>2017-07-30T10:47:02Z</time>
      </trkpt>
      <trkpt lat="42.59378" lon="-0.18556">
        <ele>1786.5</ele>
        <time>2017-07-30T10:47:04Z</time>
      </trkpt>
      <trkpt lat="42.59378" lon="-0.18552">
        <ele>1785.5</ele>
        <time>2017-07-30T10:47:10Z</time>
      </trkpt>
      <trkpt lat="42.59377" lon="-0.18546">
        <ele>1784</ele>
        <time>2017-07-30T10:47:12Z</time>
      </trkpt>
      <trkpt lat="42.59377" lon="-0.18542">
        <ele>1782.5</ele>
        <time>2017-07-30T10:47:14Z</time>
      </trkpt>
      <trkpt lat="42.59376" lon="-0.18537">
        <ele>1781.5</ele>
        <time>2017-07-30T10:47:16Z</time>
      </trkpt>
      <trkpt lat="42.59375" lon="-0.18532">
        <ele>1780.5</ele>
        <time>2017-07-30T10:47:18Z</time>
      </trkpt>
      <trkpt lat="42.59375" lon="-0.18526">
        <ele>1779.6</ele>
        <time>2017-07-30T10:47:20Z</time>
      </trkpt>
      <trkpt lat="42.59375" lon="-0.1852">
        <ele>1777.7</ele>
        <time>2017-07-30T10:47:22Z</time>
      </trkpt>
      <trkpt lat="42.59374" lon="-0.18514">
        <ele>1776.1</ele>
        <time>2017-07-30T10:47:24Z</time>
      </trkpt>
      <trkpt lat="42.59374" lon="-0.18509">
        <ele>1776.5</ele>
        <time>2017-07-30T10:47:26Z</time>
      </trkpt>
      <trkpt lat="42.59374" lon="-0.18501">
        <ele>1776.2</ele>
        <time>2017-07-30T10:47:28Z</time>
      </trkpt>
      <trkpt lat="42.59376" lon="-0.18496">
        <ele>1775.5</ele>
        <time>2017-07-30T10:47:29Z</time>
      </trkpt>
      <trkpt lat="42.59376" lon="-0.18491">
        <ele>1774.9</ele>
        <time>2017-07-30T10:47:30Z</time>
      </trkpt>
      <trkpt lat="42.59377" lon="-0.18487">
        <ele>1774.4</ele>
        <time>2017-07-30T10:47:31Z</time>
      </trkpt>
      <trkpt lat="42.59378" lon="-0.18482">
        <ele>1774.7</ele>
        <time>2017-07-30T10:47:33Z</time>
      </trkpt>
      <trkpt lat="42.59379" lon="-0.18479">
        <ele>1775.1</ele>
        <time>2017-07-30T10:47:35Z</time>
      </trkpt>
      <trkpt lat="42.59379" lon="-0.18475">
        <ele>1774.7</ele>
        <time>2017-07-30T10:47:37Z</time>
      </trkpt>
      <trkpt lat="42.59379" lon="-0.18468">
        <ele>1773</ele>
        <time>2017-07-30T10:47:39Z</time>
      </trkpt>
      <trkpt lat="42.5938" lon="-0.18463">
        <ele>1774</ele>
        <time>2017-07-30T10:47:40Z</time>
      </trkpt>
      <trkpt lat="42.59382" lon="-0.18459">
        <ele>1775.1</ele>
        <time>2017-07-30T10:47:41Z</time>
      </trkpt>
      <trkpt lat="42.59383" lon="-0.18454">
        <ele>1776.1</ele>
        <time>2017-07-30T10:47:42Z</time>
      </trkpt>
      <trkpt lat="42.59385" lon="-0.18449">
        <ele>1775.9</ele>
        <time>2017-07-30T10:47:43Z</time>
      </trkpt>
      <trkpt lat="42.59387" lon="-0.18444">
        <ele>1776.4</ele>
        <time>2017-07-30T10:47:44Z</time>
      </trkpt>
      <trkpt lat="42.59389" lon="-0.1844">
        <ele>1776.9</ele>
        <time>2017-07-30T10:47:45Z</time>
      </trkpt>
      <trkpt lat="42.5939" lon="-0.18437">
        <ele>1777.4</ele>
        <time>2017-07-30T10:47:46Z</time>
      </trkpt>
      <trkpt lat="42.59393" lon="-0.18434">
        <ele>1778.3</ele>
        <time>2017-07-30T10:47:48Z</time>
      </trkpt>
      <trkpt lat="42.59393" lon="-0.1843">
        <ele>1779</ele>
        <time>2017-07-30T10:47:50Z</time>
      </trkpt>
      <trkpt lat="42.59392" lon="-0.18425">
        <ele>1777.9</ele>
        <time>2017-07-30T10:47:52Z</time>
      </trkpt>
      <trkpt lat="42.5939" lon="-0.1842">
        <ele>1776.4</ele>
        <time>2017-07-30T10:47:54Z</time>
      </trkpt>
      <trkpt lat="42.5939" lon="-0.18416">
        <ele>1775.5</ele>
        <time>2017-07-30T10:48:03Z</time>
      </trkpt>
      <trkpt lat="42.59392" lon="-0.18413">
        <ele>1774.6</ele>
        <time>2017-07-30T10:48:08Z</time>
      </trkpt>
      <trkpt lat="42.59394" lon="-0.1841">
        <ele>1773.9</ele>
        <time>2017-07-30T10:48:13Z</time>
      </trkpt>
      <trkpt lat="42.59394" lon="-0.18406">
        <ele>1774.2</ele>
        <time>2017-07-30T10:48:18Z</time>
      </trkpt>
      <trkpt lat="42.59393" lon="-0.184">
        <ele>1773.6</ele>
        <time>2017-07-30T10:48:21Z</time>
      </trkpt>
      <trkpt lat="42.59394" lon="-0.18395">
        <ele>1772.5</ele>
        <time>2017-07-30T10:48:23Z</time>
      </trkpt>
      <trkpt lat="42.59395" lon="-0.18389">
        <ele>1771.4</ele>
        <time>2017-07-30T10:48:25Z</time>
      </trkpt>
      <trkpt lat="42.59395" lon="-0.18383">
        <ele>1770.4</ele>
        <time>2017-07-30T10:48:27Z</time>
      </trkpt>
      <trkpt lat="42.59397" lon="-0.18377">
        <ele>1769.8</ele>
        <time>2017-07-30T10:48:29Z</time>
      </trkpt>
      <trkpt lat="42.59399" lon="-0.18372">
        <ele>1769.6</ele>
        <time>2017-07-30T10:48:31Z</time>
      </trkpt>
      <trkpt lat="42.59401" lon="-0.18369">
        <ele>1769.6</ele>
        <time>2017-07-30T10:48:37Z</time>
      </trkpt>
      <trkpt lat="42.59401" lon="-0.18364">
        <ele>1769.6</ele>
        <time>2017-07-30T10:48:42Z</time>
      </trkpt>
      <trkpt lat="42.59401" lon="-0.18359">
        <ele>1768.9</ele>
        <time>2017-07-30T10:48:44Z</time>
      </trkpt>
      <trkpt lat="42.59402" lon="-0.18353">
        <ele>1768.5</ele>
        <time>2017-07-30T10:48:46Z</time>
      </trkpt>
      <trkpt lat="42.59404" lon="-0.18348">
        <ele>1768.9</ele>
        <time>2017-07-30T10:48:48Z</time>
      </trkpt>
      <trkpt lat="42.59407" lon="-0.18344">
        <ele>1769.6</ele>
        <time>2017-07-30T10:48:51Z</time>
      </trkpt>
      <trkpt lat="42.59408" lon="-0.1834">
        <ele>1770</ele>
        <time>2017-07-30T10:48:53Z</time>
      </trkpt>
      <trkpt lat="42.59408" lon="-0.18333">
        <ele>1770.1</ele>
        <time>2017-07-30T10:48:55Z</time>
      </trkpt>
      <trkpt lat="42.59407" lon="-0.18329">
        <ele>1768.9</ele>
        <time>2017-07-30T10:48:56Z</time>
      </trkpt>
      <trkpt lat="42.59407" lon="-0.18324">
        <ele>1767.4</ele>
        <time>2017-07-30T10:48:57Z</time>
      </trkpt>
      <trkpt lat="42.59406" lon="-0.18318">
        <ele>1766.1</ele>
        <time>2017-07-30T10:48:58Z</time>
      </trkpt>
      <trkpt lat="42.59407" lon="-0.18313">
        <ele>1764.8</ele>
        <time>2017-07-30T10:48:59Z</time>
      </trkpt>
      <trkpt lat="42.59407" lon="-0.18308">
        <ele>1763.8</ele>
        <time>2017-07-30T10:49:00Z</time>
      </trkpt>
      <trkpt lat="42.59407" lon="-0.18305">
        <ele>1763</ele>
        <time>2017-07-30T10:49:01Z</time>
      </trkpt>
      <trkpt lat="42.59408" lon="-0.183">
        <ele>1762.2</ele>
        <time>2017-07-30T10:49:03Z</time>
      </trkpt>
      <trkpt lat="42.5941" lon="-0.18297">
        <ele>1761.8</ele>
        <time>2017-07-30T10:49:06Z</time>
      </trkpt>
      <trkpt lat="42.59409" lon="-0.18293">
        <ele>1761.4</ele>
        <time>2017-07-30T10:49:18Z</time>
      </trkpt>
      <trkpt lat="42.59409" lon="-0.18289">
        <ele>1759.8</ele>
        <time>2017-07-30T10:49:27Z</time>
      </trkpt>
      <trkpt lat="42.59411" lon="-0.18285">
        <ele>1758.2</ele>
        <time>2017-07-30T10:49:31Z</time>
      </trkpt>
      <trkpt lat="42.59413" lon="-0.18283">
        <ele>1757.4</ele>
        <time>2017-07-30T10:49:34Z</time>
      </trkpt>
      <trkpt lat="42.59415" lon="-0.1828">
        <ele>1756.5</ele>
        <time>2017-07-30T10:49:41Z</time>
      </trkpt>
      <trkpt lat="42.59415" lon="-0.18275">
        <ele>1756.2</ele>
        <time>2017-07-30T10:49:45Z</time>
      </trkpt>
      <trkpt lat="42.59417" lon="-0.18273">
        <ele>1756.1</ele>
        <time>2017-07-30T10:49:51Z</time>
      </trkpt>
      <trkpt lat="42.5942" lon="-0.18271">
        <ele>1756</ele>
        <time>2017-07-30T10:49:56Z</time>
      </trkpt>
      <trkpt lat="42.59422" lon="-0.18273">
        <ele>1755.9</ele>
        <time>2017-07-30T10:50:06Z</time>
      </trkpt>
      <trkpt lat="42.59422" lon="-0.18269">
        <ele>1755.9</ele>
        <time>2017-07-30T10:50:31Z</time>
      </trkpt>
      <trkpt lat="42.59426" lon="-0.18268">
        <ele>1756.7</ele>
        <time>2017-07-30T10:50:36Z</time>
      </trkpt>
      <trkpt lat="42.59429" lon="-0.18266">
        <ele>1757.5</ele>
        <time>2017-07-30T10:50:38Z</time>
      </trkpt>
      <trkpt lat="42.59434" lon="-0.18263">
        <ele>1757.3</ele>
        <time>2017-07-30T10:50:40Z</time>
      </trkpt>
      <trkpt lat="42.59439" lon="-0.18262">
        <ele>1756.8</ele>
        <time>2017-07-30T10:50:42Z</time>
      </trkpt>
      <trkpt lat="42.59444" lon="-0.1826">
        <ele>1755.7</ele>
        <time>2017-07-30T10:50:44Z</time>
      </trkpt>
      <trkpt lat="42.59447" lon="-0.18259">
        <ele>1755.7</ele>
        <time>2017-07-30T10:50:45Z</time>
      </trkpt>
      <trkpt lat="42.5945" lon="-0.18258">
        <ele>1755.8</ele>
        <time>2017-07-30T10:50:46Z</time>
      </trkpt>
      <trkpt lat="42.59453" lon="-0.18257">
        <ele>1755.9</ele>
        <time>2017-07-30T10:50:47Z</time>
      </trkpt>
      <trkpt lat="42.59457" lon="-0.18256">
        <ele>1756</ele>
        <time>2017-07-30T10:50:48Z</time>
      </trkpt>
      <trkpt lat="42.5946" lon="-0.18255">
        <ele>1755.8</ele>
        <time>2017-07-30T10:50:49Z</time>
      </trkpt>
      <trkpt lat="42.59463" lon="-0.18254">
        <ele>1754.9</ele>
        <time>2017-07-30T10:50:50Z</time>
      </trkpt>
      <trkpt lat="42.59466" lon="-0.18254">
        <ele>1754.1</ele>
        <time>2017-07-30T10:50:51Z</time>
      </trkpt>
      <trkpt lat="42.59471" lon="-0.18254">
        <ele>1753.7</ele>
        <time>2017-07-30T10:50:53Z</time>
      </trkpt>
      <trkpt lat="42.59475" lon="-0.18255">
        <ele>1753.4</ele>
        <time>2017-07-30T10:50:55Z</time>
      </trkpt>
      <trkpt lat="42.59478" lon="-0.18255">
        <ele>1752.9</ele>
        <time>2017-07-30T10:50:57Z</time>
      </trkpt>
      <trkpt lat="42.59481" lon="-0.18256">
        <ele>1752.5</ele>
        <time>2017-07-30T10:50:58Z</time>
      </trkpt>
      <trkpt lat="42.59485" lon="-0.18256">
        <ele>1751.7</ele>
        <time>2017-07-30T10:50:59Z</time>
      </trkpt>
      <trkpt lat="42.59488" lon="-0.18257">
        <ele>1751.2</ele>
        <time>2017-07-30T10:51:00Z</time>
      </trkpt>
      <trkpt lat="42.59492" lon="-0.18258">
        <ele>1750.8</ele>
        <time>2017-07-30T10:51:01Z</time>
      </trkpt>
      <trkpt lat="42.59495" lon="-0.18258">
        <ele>1750.4</ele>
        <time>2017-07-30T10:51:02Z</time>
      </trkpt>
      <trkpt lat="42.59499" lon="-0.18259">
        <ele>1749.7</ele>
        <time>2017-07-30T10:51:03Z</time>
      </trkpt>
      <trkpt lat="42.59503" lon="-0.1826">
        <ele>1748.8</ele>
        <time>2017-07-30T10:51:04Z</time>
      </trkpt>
      <trkpt lat="42.59507" lon="-0.18261">
        <ele>1748.9</ele>
        <time>2017-07-30T10:51:05Z</time>
      </trkpt>
      <trkpt lat="42.59512" lon="-0.18262">
        <ele>1749.3</ele>
        <time>2017-07-30T10:51:06Z</time>
      </trkpt>
      <trkpt lat="42.59517" lon="-0.18263">
        <ele>1749.8</ele>
        <time>2017-07-30T10:51:07Z</time>
      </trkpt>
      <trkpt lat="42.59521" lon="-0.18264">
        <ele>1750.1</ele>
        <time>2017-07-30T10:51:08Z</time>
      </trkpt>
      <trkpt lat="42.59525" lon="-0.18265">
        <ele>1750</ele>
        <time>2017-07-30T10:51:09Z</time>
      </trkpt>
      <trkpt lat="42.59528" lon="-0.18265">
        <ele>1749.7</ele>
        <time>2017-07-30T10:51:10Z</time>
      </trkpt>
      <trkpt lat="42.59532" lon="-0.18266">
        <ele>1749.8</ele>
        <time>2017-07-30T10:51:11Z</time>
      </trkpt>
      <trkpt lat="42.59537" lon="-0.18267">
        <ele>1750.2</ele>
        <time>2017-07-30T10:51:12Z</time>
      </trkpt>
      <trkpt lat="42.59543" lon="-0.18268">
        <ele>1749.8</ele>
        <time>2017-07-30T10:51:13Z</time>
      </trkpt>
      <trkpt lat="42.59548" lon="-0.1827">
        <ele>1749.1</ele>
        <time>2017-07-30T10:51:14Z</time>
      </trkpt>
      <trkpt lat="42.59554" lon="-0.18271">
        <ele>1749.2</ele>
        <time>2017-07-30T10:51:15Z</time>
      </trkpt>
      <trkpt lat="42.5956" lon="-0.18272">
        <ele>1748.6</ele>
        <time>2017-07-30T10:51:16Z</time>
      </trkpt>
      <trkpt lat="42.59566" lon="-0.18274">
        <ele>1747.8</ele>
        <time>2017-07-30T10:51:17Z</time>
      </trkpt>
      <trkpt lat="42.59571" lon="-0.18275">
        <ele>1747.9</ele>
        <time>2017-07-30T10:51:18Z</time>
      </trkpt>
      <trkpt lat="42.59575" lon="-0.18276">
        <ele>1747.7</ele>
        <time>2017-07-30T10:51:19Z</time>
      </trkpt>
      <trkpt lat="42.59578" lon="-0.18277">
        <ele>1747</ele>
        <time>2017-07-30T10:51:20Z</time>
      </trkpt>
      <trkpt lat="42.59581" lon="-0.18278">
        <ele>1746.2</ele>
        <time>2017-07-30T10:51:21Z</time>
      </trkpt>
      <trkpt lat="42.59584" lon="-0.18278">
        <ele>1745.6</ele>
        <time>2017-07-30T10:51:22Z</time>
      </trkpt>
      <trkpt lat="42.59588" lon="-0.18278">
        <ele>1745.1</ele>
        <time>2017-07-30T10:51:23Z</time>
      </trkpt>
      <trkpt lat="42.59592" lon="-0.18279">
        <ele>1744.5</ele>
        <time>2017-07-30T10:51:25Z</time>
      </trkpt>
      <trkpt lat="42.59596" lon="-0.18281">
        <ele>1744.1</ele>
        <time>2017-07-30T10:51:27Z</time>
      </trkpt>
      <trkpt lat="42.59601" lon="-0.18282">
        <ele>1743.7</ele>
        <time>2017-07-30T10:51:29Z</time>
      </trkpt>
      <trkpt lat="42.59606" lon="-0.18282">
        <ele>1743.3</ele>
        <time>2017-07-30T10:51:31Z</time>
      </trkpt>
      <trkpt lat="42.5961" lon="-0.18283">
        <ele>1743.2</ele>
        <time>2017-07-30T10:51:33Z</time>
      </trkpt>
      <trkpt lat="42.59615" lon="-0.18284">
        <ele>1743.1</ele>
        <time>2017-07-30T10:51:35Z</time>
      </trkpt>
      <trkpt lat="42.5962" lon="-0.18285">
        <ele>1743.1</ele>
        <time>2017-07-30T10:51:37Z</time>
      </trkpt>
      <trkpt lat="42.59624" lon="-0.18284">
        <ele>1743.4</ele>
        <time>2017-07-30T10:51:39Z</time>
      </trkpt>
      <trkpt lat="42.59628" lon="-0.18283">
        <ele>1743.6</ele>
        <time>2017-07-30T10:51:41Z</time>
      </trkpt>
      <trkpt lat="42.59632" lon="-0.18281">
        <ele>1743.4</ele>
        <time>2017-07-30T10:51:43Z</time>
      </trkpt>
      <trkpt lat="42.59638" lon="-0.18279">
        <ele>1742.6</ele>
        <time>2017-07-30T10:51:45Z</time>
      </trkpt>
      <trkpt lat="42.59641" lon="-0.18279">
        <ele>1741.8</ele>
        <time>2017-07-30T10:51:46Z</time>
      </trkpt>
      <trkpt lat="42.59645" lon="-0.18279">
        <ele>1741.2</ele>
        <time>2017-07-30T10:51:47Z</time>
      </trkpt>
      <trkpt lat="42.59648" lon="-0.18279">
        <ele>1741</ele>
        <time>2017-07-30T10:51:48Z</time>
      </trkpt>
      <trkpt lat="42.59653" lon="-0.18279">
        <ele>1740.7</ele>
        <time>2017-07-30T10:51:50Z</time>
      </trkpt>
      <trkpt lat="42.59657" lon="-0.18277">
        <ele>1740.3</ele>
        <time>2017-07-30T10:51:52Z</time>
      </trkpt>
      <trkpt lat="42.59662" lon="-0.18274">
        <ele>1738.8</ele>
        <time>2017-07-30T10:51:54Z</time>
      </trkpt>
      <trkpt lat="42.59666" lon="-0.18274">
        <ele>1737.7</ele>
        <time>2017-07-30T10:51:55Z</time>
      </trkpt>
      <trkpt lat="42.59669" lon="-0.18273">
        <ele>1736.7</ele>
        <time>2017-07-30T10:51:56Z</time>
      </trkpt>
      <trkpt lat="42.59672" lon="-0.18273">
        <ele>1736</ele>
        <time>2017-07-30T10:51:57Z</time>
      </trkpt>
      <trkpt lat="42.59675" lon="-0.18273">
        <ele>1735.3</ele>
        <time>2017-07-30T10:51:58Z</time>
      </trkpt>
      <trkpt lat="42.5968" lon="-0.18273">
        <ele>1734</ele>
        <time>2017-07-30T10:52:00Z</time>
      </trkpt>
      <trkpt lat="42.59683" lon="-0.18273">
        <ele>1733.2</ele>
        <time>2017-07-30T10:52:01Z</time>
      </trkpt>
      <trkpt lat="42.59687" lon="-0.18272">
        <ele>1732.4</ele>
        <time>2017-07-30T10:52:02Z</time>
      </trkpt>
      <trkpt lat="42.5969" lon="-0.18272">
        <ele>1731.7</ele>
        <time>2017-07-30T10:52:03Z</time>
      </trkpt>
      <trkpt lat="42.59693" lon="-0.18272">
        <ele>1731</ele>
        <time>2017-07-30T10:52:04Z</time>
      </trkpt>
      <trkpt lat="42.59697" lon="-0.18271">
        <ele>1729.1</ele>
        <time>2017-07-30T10:52:06Z</time>
      </trkpt>
      <trkpt lat="42.59701" lon="-0.1827">
        <ele>1727</ele>
        <time>2017-07-30T10:52:08Z</time>
      </trkpt>
      <trkpt lat="42.59705" lon="-0.1827">
        <ele>1725.3</ele>
        <time>2017-07-30T10:52:10Z</time>
      </trkpt>
      <trkpt lat="42.5971" lon="-0.1827">
        <ele>1723.8</ele>
        <time>2017-07-30T10:52:12Z</time>
      </trkpt>
      <trkpt lat="42.59713" lon="-0.18271">
        <ele>1722.7</ele>
        <time>2017-07-30T10:52:14Z</time>
      </trkpt>
      <trkpt lat="42.59718" lon="-0.18271">
        <ele>1721.4</ele>
        <time>2017-07-30T10:52:16Z</time>
      </trkpt>
      <trkpt lat="42.59722" lon="-0.18269">
        <ele>1720.1</ele>
        <time>2017-07-30T10:52:18Z</time>
      </trkpt>
      <trkpt lat="42.59726" lon="-0.18267">
        <ele>1717.7</ele>
        <time>2017-07-30T10:52:20Z</time>
      </trkpt>
      <trkpt lat="42.5973" lon="-0.18264">
        <ele>1715.5</ele>
        <time>2017-07-30T10:52:22Z</time>
      </trkpt>
      <trkpt lat="42.59734" lon="-0.18261">
        <ele>1713.7</ele>
        <time>2017-07-30T10:52:24Z</time>
      </trkpt>
      <trkpt lat="42.59738" lon="-0.18259">
        <ele>1712.4</ele>
        <time>2017-07-30T10:52:26Z</time>
      </trkpt>
      <trkpt lat="42.59742" lon="-0.18258">
        <ele>1711.6</ele>
        <time>2017-07-30T10:52:28Z</time>
      </trkpt>
      <trkpt lat="42.59746" lon="-0.18257">
        <ele>1711.5</ele>
        <time>2017-07-30T10:52:29Z</time>
      </trkpt>
      <trkpt lat="42.5975" lon="-0.18256">
        <ele>1711.7</ele>
        <time>2017-07-30T10:52:30Z</time>
      </trkpt>
      <trkpt lat="42.59755" lon="-0.18254">
        <ele>1711.9</ele>
        <time>2017-07-30T10:52:31Z</time>
      </trkpt>
      <trkpt lat="42.59758" lon="-0.18253">
        <ele>1711.6</ele>
        <time>2017-07-30T10:52:32Z</time>
      </trkpt>
      <trkpt lat="42.59762" lon="-0.1825">
        <ele>1711.2</ele>
        <time>2017-07-30T10:52:34Z</time>
      </trkpt>
      <trkpt lat="42.59765" lon="-0.18245">
        <ele>1710.8</ele>
        <time>2017-07-30T10:52:36Z</time>
      </trkpt>
      <trkpt lat="42.59767" lon="-0.18241">
        <ele>1710.4</ele>
        <time>2017-07-30T10:52:37Z</time>
      </trkpt>
      <trkpt lat="42.5977" lon="-0.18237">
        <ele>1709.5</ele>
        <time>2017-07-30T10:52:38Z</time>
      </trkpt>
      <trkpt lat="42.59773" lon="-0.18234">
        <ele>1708.7</ele>
        <time>2017-07-30T10:52:39Z</time>
      </trkpt>
      <trkpt lat="42.59775" lon="-0.1823">
        <ele>1707.8</ele>
        <time>2017-07-30T10:52:40Z</time>
      </trkpt>
      <trkpt lat="42.59777" lon="-0.18227">
        <ele>1706.9</ele>
        <time>2017-07-30T10:52:41Z</time>
      </trkpt>
      <trkpt lat="42.59779" lon="-0.18224">
        <ele>1706.3</ele>
        <time>2017-07-30T10:52:42Z</time>
      </trkpt>
      <trkpt lat="42.59782" lon="-0.18222">
        <ele>1705.6</ele>
        <time>2017-07-30T10:52:43Z</time>
      </trkpt>
      <trkpt lat="42.59784" lon="-0.1822">
        <ele>1705</ele>
        <time>2017-07-30T10:52:44Z</time>
      </trkpt>
      <trkpt lat="42.59786" lon="-0.18218">
        <ele>1704.6</ele>
        <time>2017-07-30T10:52:45Z</time>
      </trkpt>
      <trkpt lat="42.5979" lon="-0.18215">
        <ele>1704.4</ele>
        <time>2017-07-30T10:52:47Z</time>
      </trkpt>
      <trkpt lat="42.59793" lon="-0.18212">
        <ele>1704.2</ele>
        <time>2017-07-30T10:52:49Z</time>
      </trkpt>
      <trkpt lat="42.59799" lon="-0.18209">
        <ele>1703.8</ele>
        <time>2017-07-30T10:52:51Z</time>
      </trkpt>
      <trkpt lat="42.59802" lon="-0.18207">
        <ele>1703.6</ele>
        <time>2017-07-30T10:52:52Z</time>
      </trkpt>
      <trkpt lat="42.59805" lon="-0.18205">
        <ele>1703.4</ele>
        <time>2017-07-30T10:52:53Z</time>
      </trkpt>
      <trkpt lat="42.59808" lon="-0.18203">
        <ele>1703.2</ele>
        <time>2017-07-30T10:52:54Z</time>
      </trkpt>
      <trkpt lat="42.59811" lon="-0.18201">
        <ele>1702.8</ele>
        <time>2017-07-30T10:52:55Z</time>
      </trkpt>
      <trkpt lat="42.59814" lon="-0.182">
        <ele>1702.4</ele>
        <time>2017-07-30T10:52:56Z</time>
      </trkpt>
      <trkpt lat="42.59817" lon="-0.18199">
        <ele>1702.2</ele>
        <time>2017-07-30T10:52:57Z</time>
      </trkpt>
      <trkpt lat="42.5982" lon="-0.18199">
        <ele>1702.1</ele>
        <time>2017-07-30T10:52:58Z</time>
      </trkpt>
      <trkpt lat="42.59823" lon="-0.18198">
        <ele>1701.9</ele>
        <time>2017-07-30T10:52:59Z</time>
      </trkpt>
      <trkpt lat="42.59826" lon="-0.18198">
        <ele>1701.8</ele>
        <time>2017-07-30T10:53:00Z</time>
      </trkpt>
      <trkpt lat="42.59829" lon="-0.18197">
        <ele>1701.6</ele>
        <time>2017-07-30T10:53:01Z</time>
      </trkpt>
      <trkpt lat="42.59831" lon="-0.18196">
        <ele>1701.5</ele>
        <time>2017-07-30T10:53:02Z</time>
      </trkpt>
      <trkpt lat="42.59835" lon="-0.18193">
        <ele>1701.3</ele>
        <time>2017-07-30T10:53:04Z</time>
      </trkpt>
      <trkpt lat="42.59839" lon="-0.1819">
        <ele>1701.2</ele>
        <time>2017-07-30T10:53:06Z</time>
      </trkpt>
      <trkpt lat="42.59843" lon="-0.18188">
        <ele>1700.9</ele>
        <time>2017-07-30T10:53:08Z</time>
      </trkpt>
      <trkpt lat="42.59848" lon="-0.18186">
        <ele>1700.5</ele>
        <time>2017-07-30T10:53:10Z</time>
      </trkpt>
      <trkpt lat="42.59851" lon="-0.18185">
        <ele>1700.1</ele>
        <time>2017-07-30T10:53:11Z</time>
      </trkpt>
      <trkpt lat="42.59854" lon="-0.18184">
        <ele>1699.8</ele>
        <time>2017-07-30T10:53:12Z</time>
      </trkpt>
      <trkpt lat="42.59857" lon="-0.18182">
        <ele>1699.5</ele>
        <time>2017-07-30T10:53:13Z</time>
      </trkpt>
      <trkpt lat="42.59859" lon="-0.1818">
        <ele>1699.1</ele>
        <time>2017-07-30T10:53:14Z</time>
      </trkpt>
      <trkpt lat="42.59862" lon="-0.18178">
        <ele>1698.6</ele>
        <time>2017-07-30T10:53:15Z</time>
      </trkpt>
      <trkpt lat="42.59864" lon="-0.18176">
        <ele>1698.2</ele>
        <time>2017-07-30T10:53:16Z</time>
      </trkpt>
      <trkpt lat="42.59867" lon="-0.18174">
        <ele>1697.6</ele>
        <time>2017-07-30T10:53:17Z</time>
      </trkpt>
      <trkpt lat="42.5987" lon="-0.18172">
        <ele>1697</ele>
        <time>2017-07-30T10:53:18Z</time>
      </trkpt>
      <trkpt lat="42.59873" lon="-0.1817">
        <ele>1696.5</ele>
        <time>2017-07-30T10:53:19Z</time>
      </trkpt>
      <trkpt lat="42.59875" lon="-0.18168">
        <ele>1696.1</ele>
        <time>2017-07-30T10:53:20Z</time>
      </trkpt>
      <trkpt lat="42.59878" lon="-0.18166">
        <ele>1695.6</ele>
        <time>2017-07-30T10:53:21Z</time>
      </trkpt>
      <trkpt lat="42.5988" lon="-0.18164">
        <ele>1694.9</ele>
        <time>2017-07-30T10:53:22Z</time>
      </trkpt>
      <trkpt lat="42.59883" lon="-0.18162">
        <ele>1693.8</ele>
        <time>2017-07-30T10:53:23Z</time>
      </trkpt>
      <trkpt lat="42.59885" lon="-0.1816">
        <ele>1693.6</ele>
        <time>2017-07-30T10:53:24Z</time>
      </trkpt>
      <trkpt lat="42.59887" lon="-0.18157">
        <ele>1693.1</ele>
        <time>2017-07-30T10:53:25Z</time>
      </trkpt>
      <trkpt lat="42.59889" lon="-0.18154">
        <ele>1693</ele>
        <time>2017-07-30T10:53:26Z</time>
      </trkpt>
      <trkpt lat="42.59891" lon="-0.18151">
        <ele>1692.2</ele>
        <time>2017-07-30T10:53:27Z</time>
      </trkpt>
      <trkpt lat="42.59893" lon="-0.18147">
        <ele>1691</ele>
        <time>2017-07-30T10:53:28Z</time>
      </trkpt>
      <trkpt lat="42.59894" lon="-0.18143">
        <ele>1690</ele>
        <time>2017-07-30T10:53:29Z</time>
      </trkpt>
      <trkpt lat="42.59897" lon="-0.18138">
        <ele>1688.7</ele>
        <time>2017-07-30T10:53:30Z</time>
      </trkpt>
      <trkpt lat="42.59899" lon="-0.18134">
        <ele>1687.7</ele>
        <time>2017-07-30T10:53:31Z</time>
      </trkpt>
      <trkpt lat="42.59902" lon="-0.1813">
        <ele>1686.5</ele>
        <time>2017-07-30T10:53:32Z</time>
      </trkpt>
      <trkpt lat="42.59904" lon="-0.18126">
        <ele>1685.4</ele>
        <time>2017-07-30T10:53:33Z</time>
      </trkpt>
      <trkpt lat="42.59907" lon="-0.18121">
        <ele>1684.5</ele>
        <time>2017-07-30T10:53:34Z</time>
      </trkpt>
      <trkpt lat="42.59909" lon="-0.18117">
        <ele>1683.1</ele>
        <time>2017-07-30T10:53:35Z</time>
      </trkpt>
      <trkpt lat="42.5991" lon="-0.18113">
        <ele>1682.5</ele>
        <time>2017-07-30T10:53:36Z</time>
      </trkpt>
      <trkpt lat="42.59913" lon="-0.18109">
        <ele>1682</ele>
        <time>2017-07-30T10:53:37Z</time>
      </trkpt>
      <trkpt lat="42.59916" lon="-0.18105">
        <ele>1681.2</ele>
        <time>2017-07-30T10:53:38Z</time>
      </trkpt>
      <trkpt lat="42.59919" lon="-0.181">
        <ele>1679.6</ele>
        <time>2017-07-30T10:53:39Z</time>
      </trkpt>
      <trkpt lat="42.59922" lon="-0.18096">
        <ele>1678.6</ele>
        <time>2017-07-30T10:53:40Z</time>
      </trkpt>
      <trkpt lat="42.59925" lon="-0.18092">
        <ele>1677.7</ele>
        <time>2017-07-30T10:53:41Z</time>
      </trkpt>
      <trkpt lat="42.59927" lon="-0.18087">
        <ele>1677.2</ele>
        <time>2017-07-30T10:53:42Z</time>
      </trkpt>
      <trkpt lat="42.5993" lon="-0.18084">
        <ele>1676.9</ele>
        <time>2017-07-30T10:53:43Z</time>
      </trkpt>
      <trkpt lat="42.59932" lon="-0.18082">
        <ele>1677.7</ele>
        <time>2017-07-30T10:53:44Z</time>
      </trkpt>
      <trkpt lat="42.59934" lon="-0.18079">
        <ele>1676.5</ele>
        <time>2017-07-30T10:53:45Z</time>
      </trkpt>
      <trkpt lat="42.59936" lon="-0.18076">
        <ele>1675.9</ele>
        <time>2017-07-30T10:53:46Z</time>
      </trkpt>
      <trkpt lat="42.59939" lon="-0.18072">
        <ele>1676.7</ele>
        <time>2017-07-30T10:53:47Z</time>
      </trkpt>
      <trkpt lat="42.59943" lon="-0.18067">
        <ele>1675.8</ele>
        <time>2017-07-30T10:53:48Z</time>
      </trkpt>
      <trkpt lat="42.59946" lon="-0.18063">
        <ele>1674.7</ele>
        <time>2017-07-30T10:53:49Z</time>
      </trkpt>
      <trkpt lat="42.59948" lon="-0.18061">
        <ele>1673.7</ele>
        <time>2017-07-30T10:53:50Z</time>
      </trkpt>
      <trkpt lat="42.59952" lon="-0.18056">
        <ele>1672.8</ele>
        <time>2017-07-30T10:53:52Z</time>
      </trkpt>
      <trkpt lat="42.59954" lon="-0.18052">
        <ele>1672</ele>
        <time>2017-07-30T10:53:53Z</time>
      </trkpt>
      <trkpt lat="42.59956" lon="-0.18048">
        <ele>1670.7</ele>
        <time>2017-07-30T10:53:54Z</time>
      </trkpt>
      <trkpt lat="42.59959" lon="-0.18044">
        <ele>1669.8</ele>
        <time>2017-07-30T10:53:55Z</time>
      </trkpt>
      <trkpt lat="42.59962" lon="-0.1804">
        <ele>1669.1</ele>
        <time>2017-07-30T10:53:56Z</time>
      </trkpt>
      <trkpt lat="42.59965" lon="-0.18035">
        <ele>1668.7</ele>
        <time>2017-07-30T10:53:57Z</time>
      </trkpt>
      <trkpt lat="42.59967" lon="-0.18031">
        <ele>1668.5</ele>
        <time>2017-07-30T10:53:58Z</time>
      </trkpt>
      <trkpt lat="42.59969" lon="-0.18027">
        <ele>1667.9</ele>
        <time>2017-07-30T10:53:59Z</time>
      </trkpt>
      <trkpt lat="42.59971" lon="-0.18024">
        <ele>1668.2</ele>
        <time>2017-07-30T10:54:00Z</time>
      </trkpt>
      <trkpt lat="42.59973" lon="-0.1802">
        <ele>1668.4</ele>
        <time>2017-07-30T10:54:01Z</time>
      </trkpt>
      <trkpt lat="42.59975" lon="-0.18016">
        <ele>1668.4</ele>
        <time>2017-07-30T10:54:02Z</time>
      </trkpt>
      <trkpt lat="42.59977" lon="-0.18011">
        <ele>1668.1</ele>
        <time>2017-07-30T10:54:03Z</time>
      </trkpt>
      <trkpt lat="42.5998" lon="-0.18006">
        <ele>1668.3</ele>
        <time>2017-07-30T10:54:04Z</time>
      </trkpt>
      <trkpt lat="42.59982" lon="-0.18001">
        <ele>1667.7</ele>
        <time>2017-07-30T10:54:05Z</time>
      </trkpt>
      <trkpt lat="42.59983" lon="-0.17997">
        <ele>1667.8</ele>
        <time>2017-07-30T10:54:06Z</time>
      </trkpt>
      <trkpt lat="42.59986" lon="-0.17993">
        <ele>1667.7</ele>
        <time>2017-07-30T10:54:08Z</time>
      </trkpt>
      <trkpt lat="42.59988" lon="-0.17987">
        <ele>1666.4</ele>
        <time>2017-07-30T10:54:10Z</time>
      </trkpt>
      <trkpt lat="42.5999" lon="-0.1798">
        <ele>1664.3</ele>
        <time>2017-07-30T10:54:12Z</time>
      </trkpt>
      <trkpt lat="42.59992" lon="-0.17974">
        <ele>1663.8</ele>
        <time>2017-07-30T10:54:14Z</time>
      </trkpt>
      <trkpt lat="42.59993" lon="-0.17969">
        <ele>1662.3</ele>
        <time>2017-07-30T10:54:16Z</time>
      </trkpt>
      <trkpt lat="42.59995" lon="-0.17963">
        <ele>1660.4</ele>
        <time>2017-07-30T10:54:18Z</time>
      </trkpt>
      <trkpt lat="42.59995" lon="-0.17959">
        <ele>1658.9</ele>
        <time>2017-07-30T10:54:19Z</time>
      </trkpt>
      <trkpt lat="42.59996" lon="-0.17954">
        <ele>1657.3</ele>
        <time>2017-07-30T10:54:20Z</time>
      </trkpt>
      <trkpt lat="42.59996" lon="-0.17949">
        <ele>1655.8</ele>
        <time>2017-07-30T10:54:21Z</time>
      </trkpt>
      <trkpt lat="42.59996" lon="-0.17943">
        <ele>1653.2</ele>
        <time>2017-07-30T10:54:22Z</time>
      </trkpt>
      <trkpt lat="42.59996" lon="-0.17937">
        <ele>1651.9</ele>
        <time>2017-07-30T10:54:23Z</time>
      </trkpt>
      <trkpt lat="42.59997" lon="-0.17931">
        <ele>1650.7</ele>
        <time>2017-07-30T10:54:24Z</time>
      </trkpt>
      <trkpt lat="42.59997" lon="-0.17926">
        <ele>1649.6</ele>
        <time>2017-07-30T10:54:25Z</time>
      </trkpt>
      <trkpt lat="42.59997" lon="-0.17921">
        <ele>1647.9</ele>
        <time>2017-07-30T10:54:26Z</time>
      </trkpt>
      <trkpt lat="42.59996" lon="-0.17917">
        <ele>1647.5</ele>
        <time>2017-07-30T10:54:27Z</time>
      </trkpt>
      <trkpt lat="42.59995" lon="-0.17913">
        <ele>1647.5</ele>
        <time>2017-07-30T10:54:28Z</time>
      </trkpt>
      <trkpt lat="42.59995" lon="-0.17909">
        <ele>1646.1</ele>
        <time>2017-07-30T10:54:29Z</time>
      </trkpt>
      <trkpt lat="42.59994" lon="-0.17904">
        <ele>1645.4</ele>
        <time>2017-07-30T10:54:30Z</time>
      </trkpt>
      <trkpt lat="42.59993" lon="-0.17899">
        <ele>1645.2</ele>
        <time>2017-07-30T10:54:31Z</time>
      </trkpt>
      <trkpt lat="42.59993" lon="-0.17893">
        <ele>1645</ele>
        <time>2017-07-30T10:54:32Z</time>
      </trkpt>
      <trkpt lat="42.59992" lon="-0.17888">
        <ele>1644.9</ele>
        <time>2017-07-30T10:54:33Z</time>
      </trkpt>
      <trkpt lat="42.59992" lon="-0.17883">
        <ele>1644.6</ele>
        <time>2017-07-30T10:54:34Z</time>
      </trkpt>
      <trkpt lat="42.59992" lon="-0.17878">
        <ele>1644.2</ele>
        <time>2017-07-30T10:54:35Z</time>
      </trkpt>
      <trkpt lat="42.59993" lon="-0.17874">
        <ele>1643.8</ele>
        <time>2017-07-30T10:54:36Z</time>
      </trkpt>
      <trkpt lat="42.59993" lon="-0.17871">
        <ele>1643.8</ele>
        <time>2017-07-30T10:54:37Z</time>
      </trkpt>
      <trkpt lat="42.59993" lon="-0.17867">
        <ele>1643.5</ele>
        <time>2017-07-30T10:54:38Z</time>
      </trkpt>
      <trkpt lat="42.59993" lon="-0.17863">
        <ele>1643.3</ele>
        <time>2017-07-30T10:54:39Z</time>
      </trkpt>
      <trkpt lat="42.59992" lon="-0.17858">
        <ele>1643.1</ele>
        <time>2017-07-30T10:54:40Z</time>
      </trkpt>
      <trkpt lat="42.59991" lon="-0.17854">
        <ele>1642.2</ele>
        <time>2017-07-30T10:54:41Z</time>
      </trkpt>
      <trkpt lat="42.59991" lon="-0.1785">
        <ele>1642.1</ele>
        <time>2017-07-30T10:54:43Z</time>
      </trkpt>
      <trkpt lat="42.5999" lon="-0.17845">
        <ele>1642</ele>
        <time>2017-07-30T10:54:46Z</time>
      </trkpt>
      <trkpt lat="42.59989" lon="-0.17841">
        <ele>1641.9</ele>
        <time>2017-07-30T10:54:56Z</time>
      </trkpt>
      <trkpt lat="42.59987" lon="-0.17836">
        <ele>1641</ele>
        <time>2017-07-30T10:55:04Z</time>
      </trkpt>
      <trkpt lat="42.59986" lon="-0.17832">
        <ele>1640.8</ele>
        <time>2017-07-30T10:55:06Z</time>
      </trkpt>
      <trkpt lat="42.59985" lon="-0.17827">
        <ele>1640.1</ele>
        <time>2017-07-30T10:55:08Z</time>
      </trkpt>
      <trkpt lat="42.59985" lon="-0.17821">
        <ele>1639.1</ele>
        <time>2017-07-30T10:55:10Z</time>
      </trkpt>
      <trkpt lat="42.59984" lon="-0.17813">
        <ele>1638.3</ele>
        <time>2017-07-30T10:55:12Z</time>
      </trkpt>
      <trkpt lat="42.59983" lon="-0.17809">
        <ele>1637.9</ele>
        <time>2017-07-30T10:55:13Z</time>
      </trkpt>
      <trkpt lat="42.59982" lon="-0.17804">
        <ele>1637.6</ele>
        <time>2017-07-30T10:55:14Z</time>
      </trkpt>
      <trkpt lat="42.59982" lon="-0.178">
        <ele>1636.8</ele>
        <time>2017-07-30T10:55:15Z</time>
      </trkpt>
      <trkpt lat="42.59981" lon="-0.17795">
        <ele>1636.5</ele>
        <time>2017-07-30T10:55:16Z</time>
      </trkpt>
      <trkpt lat="42.59981" lon="-0.17791">
        <ele>1636.2</ele>
        <time>2017-07-30T10:55:17Z</time>
      </trkpt>
      <trkpt lat="42.59981" lon="-0.17787">
        <ele>1636</ele>
        <time>2017-07-30T10:55:18Z</time>
      </trkpt>
      <trkpt lat="42.59981" lon="-0.17783">
        <ele>1635.8</ele>
        <time>2017-07-30T10:55:19Z</time>
      </trkpt>
      <trkpt lat="42.5998" lon="-0.17779">
        <ele>1635.6</ele>
        <time>2017-07-30T10:55:20Z</time>
      </trkpt>
      <trkpt lat="42.5998" lon="-0.17775">
        <ele>1635.5</ele>
        <time>2017-07-30T10:55:21Z</time>
      </trkpt>
      <trkpt lat="42.59979" lon="-0.17771">
        <ele>1635.5</ele>
        <time>2017-07-30T10:55:22Z</time>
      </trkpt>
      <trkpt lat="42.59978" lon="-0.17766">
        <ele>1634.6</ele>
        <time>2017-07-30T10:55:24Z</time>
      </trkpt>
      <trkpt lat="42.5998" lon="-0.17763">
        <ele>1635.1</ele>
        <time>2017-07-30T10:55:34Z</time>
      </trkpt>
      <trkpt lat="42.59979" lon="-0.17757">
        <ele>1634.8</ele>
        <time>2017-07-30T10:55:37Z</time>
      </trkpt>
      <trkpt lat="42.59979" lon="-0.17752">
        <ele>1634.4</ele>
        <time>2017-07-30T10:55:39Z</time>
      </trkpt>
      <trkpt lat="42.59977" lon="-0.17747">
        <ele>1634.4</ele>
        <time>2017-07-30T10:55:41Z</time>
      </trkpt>
      <trkpt lat="42.59975" lon="-0.17743">
        <ele>1633.8</ele>
        <time>2017-07-30T10:55:43Z</time>
      </trkpt>
      <trkpt lat="42.59974" lon="-0.17738">
        <ele>1633.5</ele>
        <time>2017-07-30T10:56:44Z</time>
      </trkpt>
      <trkpt lat="42.59972" lon="-0.17732">
        <ele>1632.2</ele>
        <time>2017-07-30T10:56:46Z</time>
      </trkpt>
      <trkpt lat="42.59971" lon="-0.17728">
        <ele>1631.7</ele>
        <time>2017-07-30T10:56:47Z</time>
      </trkpt>
      <trkpt lat="42.5997" lon="-0.17722">
        <ele>1631.4</ele>
        <time>2017-07-30T10:56:49Z</time>
      </trkpt>
      <trkpt lat="42.59969" lon="-0.17716">
        <ele>1631</ele>
        <time>2017-07-30T10:56:51Z</time>
      </trkpt>
      <trkpt lat="42.59969" lon="-0.1771">
        <ele>1629.4</ele>
        <time>2017-07-30T10:56:53Z</time>
      </trkpt>
      <trkpt lat="42.59968" lon="-0.17706">
        <ele>1628.8</ele>
        <time>2017-07-30T10:56:55Z</time>
      </trkpt>
      <trkpt lat="42.59967" lon="-0.17702">
        <ele>1628.1</ele>
        <time>2017-07-30T10:56:57Z</time>
      </trkpt>
      <trkpt lat="42.59965" lon="-0.17699">
        <ele>1627.5</ele>
        <time>2017-07-30T10:57:06Z</time>
      </trkpt>
      <trkpt lat="42.59964" lon="-0.17693">
        <ele>1626.3</ele>
        <time>2017-07-30T10:57:08Z</time>
      </trkpt>
      <trkpt lat="42.59963" lon="-0.17689">
        <ele>1625.6</ele>
        <time>2017-07-30T10:57:09Z</time>
      </trkpt>
      <trkpt lat="42.59963" lon="-0.17685">
        <ele>1624.3</ele>
        <time>2017-07-30T10:57:10Z</time>
      </trkpt>
      <trkpt lat="42.59961" lon="-0.17679">
        <ele>1623.5</ele>
        <time>2017-07-30T10:57:12Z</time>
      </trkpt>
      <trkpt lat="42.5996" lon="-0.17672">
        <ele>1622</ele>
        <time>2017-07-30T10:57:14Z</time>
      </trkpt>
      <trkpt lat="42.59958" lon="-0.17666">
        <ele>1621.1</ele>
        <time>2017-07-30T10:57:16Z</time>
      </trkpt>
      <trkpt lat="42.59957" lon="-0.17659">
        <ele>1619.5</ele>
        <time>2017-07-30T10:57:18Z</time>
      </trkpt>
      <trkpt lat="42.59957" lon="-0.17654">
        <ele>1618.6</ele>
        <time>2017-07-30T10:57:19Z</time>
      </trkpt>
      <trkpt lat="42.59957" lon="-0.17649">
        <ele>1617.8</ele>
        <time>2017-07-30T10:57:20Z</time>
      </trkpt>
      <trkpt lat="42.59956" lon="-0.17643">
        <ele>1617</ele>
        <time>2017-07-30T10:57:21Z</time>
      </trkpt>
      <trkpt lat="42.59956" lon="-0.17639">
        <ele>1616.5</ele>
        <time>2017-07-30T10:57:22Z</time>
      </trkpt>
      <trkpt lat="42.59955" lon="-0.17633">
        <ele>1615.9</ele>
        <time>2017-07-30T10:57:24Z</time>
      </trkpt>
      <trkpt lat="42.59954" lon="-0.17628">
        <ele>1615.7</ele>
        <time>2017-07-30T10:57:26Z</time>
      </trkpt>
      <trkpt lat="42.59953" lon="-0.17621">
        <ele>1615.4</ele>
        <time>2017-07-30T10:57:28Z</time>
      </trkpt>
      <trkpt lat="42.59953" lon="-0.17617">
        <ele>1615.4</ele>
        <time>2017-07-30T10:57:29Z</time>
      </trkpt>
      <trkpt lat="42.59953" lon="-0.17613">
        <ele>1615.3</ele>
        <time>2017-07-30T10:57:30Z</time>
      </trkpt>
      <trkpt lat="42.59953" lon="-0.17609">
        <ele>1615.1</ele>
        <time>2017-07-30T10:57:31Z</time>
      </trkpt>
      <trkpt lat="42.59952" lon="-0.17605">
        <ele>1614.7</ele>
        <time>2017-07-30T10:57:32Z</time>
      </trkpt>
      <trkpt lat="42.59952" lon="-0.17598">
        <ele>1613.5</ele>
        <time>2017-07-30T10:57:34Z</time>
      </trkpt>
      <trkpt lat="42.59952" lon="-0.17594">
        <ele>1612.7</ele>
        <time>2017-07-30T10:57:35Z</time>
      </trkpt>
      <trkpt lat="42.59952" lon="-0.1759">
        <ele>1611.8</ele>
        <time>2017-07-30T10:57:36Z</time>
      </trkpt>
      <trkpt lat="42.59952" lon="-0.17586">
        <ele>1610.9</ele>
        <time>2017-07-30T10:57:37Z</time>
      </trkpt>
      <trkpt lat="42.59953" lon="-0.17583">
        <ele>1610.9</ele>
        <time>2017-07-30T10:57:38Z</time>
      </trkpt>
      <trkpt lat="42.59954" lon="-0.17579">
        <ele>1609.7</ele>
        <time>2017-07-30T10:57:39Z</time>
      </trkpt>
      <trkpt lat="42.59955" lon="-0.17574">
        <ele>1608.8</ele>
        <time>2017-07-30T10:57:40Z</time>
      </trkpt>
      <trkpt lat="42.59956" lon="-0.17569">
        <ele>1607</ele>
        <time>2017-07-30T10:57:41Z</time>
      </trkpt>
      <trkpt lat="42.59956" lon="-0.17563">
        <ele>1606.1</ele>
        <time>2017-07-30T10:57:42Z</time>
      </trkpt>
      <trkpt lat="42.59957" lon="-0.17558">
        <ele>1605.4</ele>
        <time>2017-07-30T10:57:43Z</time>
      </trkpt>
      <trkpt lat="42.59957" lon="-0.17553">
        <ele>1604.8</ele>
        <time>2017-07-30T10:57:44Z</time>
      </trkpt>
      <trkpt lat="42.59958" lon="-0.17548">
        <ele>1603.9</ele>
        <time>2017-07-30T10:57:45Z</time>
      </trkpt>
      <trkpt lat="42.59958" lon="-0.17542">
        <ele>1603.3</ele>
        <time>2017-07-30T10:57:46Z</time>
      </trkpt>
      <trkpt lat="42.59959" lon="-0.17538">
        <ele>1602.8</ele>
        <time>2017-07-30T10:57:47Z</time>
      </trkpt>
      <trkpt lat="42.59959" lon="-0.17534">
        <ele>1602.3</ele>
        <time>2017-07-30T10:57:48Z</time>
      </trkpt>
      <trkpt lat="42.5996" lon="-0.17527">
        <ele>1601.9</ele>
        <time>2017-07-30T10:57:50Z</time>
      </trkpt>
      <trkpt lat="42.59958" lon="-0.17524">
        <ele>1601.4</ele>
        <time>2017-07-30T10:57:58Z</time>
      </trkpt>
      <trkpt lat="42.59958" lon="-0.1752">
        <ele>1600.8</ele>
        <time>2017-07-30T10:58:09Z</time>
      </trkpt>
      <trkpt lat="42.59957" lon="-0.17517">
        <ele>1600</ele>
        <time>2017-07-30T10:58:13Z</time>
      </trkpt>
      <trkpt lat="42.59958" lon="-0.17512">
        <ele>1599.2</ele>
        <time>2017-07-30T10:58:18Z</time>
      </trkpt>
      <trkpt lat="42.59958" lon="-0.17508">
        <ele>1598.4</ele>
        <time>2017-07-30T10:58:20Z</time>
      </trkpt>
      <trkpt lat="42.59958" lon="-0.17504">
        <ele>1597.7</ele>
        <time>2017-07-30T10:58:22Z</time>
      </trkpt>
      <trkpt lat="42.59958" lon="-0.175">
        <ele>1597.1</ele>
        <time>2017-07-30T10:58:24Z</time>
      </trkpt>
      <trkpt lat="42.5996" lon="-0.17494">
        <ele>1596.4</ele>
        <time>2017-07-30T10:58:26Z</time>
      </trkpt>
      <trkpt lat="42.59961" lon="-0.1749">
        <ele>1596.3</ele>
        <time>2017-07-30T10:58:27Z</time>
      </trkpt>
      <trkpt lat="42.59961" lon="-0.17485">
        <ele>1595.5</ele>
        <time>2017-07-30T10:58:28Z</time>
      </trkpt>
      <trkpt lat="42.59962" lon="-0.17479">
        <ele>1594</ele>
        <time>2017-07-30T10:58:29Z</time>
      </trkpt>
      <trkpt lat="42.59962" lon="-0.17473">
        <ele>1593.3</ele>
        <time>2017-07-30T10:58:30Z</time>
      </trkpt>
      <trkpt lat="42.59962" lon="-0.17468">
        <ele>1592.6</ele>
        <time>2017-07-30T10:58:31Z</time>
      </trkpt>
      <trkpt lat="42.59962" lon="-0.17463">
        <ele>1591.8</ele>
        <time>2017-07-30T10:58:32Z</time>
      </trkpt>
      <trkpt lat="42.59962" lon="-0.17458">
        <ele>1590.9</ele>
        <time>2017-07-30T10:58:33Z</time>
      </trkpt>
      <trkpt lat="42.59962" lon="-0.17454">
        <ele>1590.1</ele>
        <time>2017-07-30T10:58:34Z</time>
      </trkpt>
      <trkpt lat="42.59962" lon="-0.1745">
        <ele>1589.3</ele>
        <time>2017-07-30T10:58:35Z</time>
      </trkpt>
      <trkpt lat="42.59962" lon="-0.17445">
        <ele>1588.5</ele>
        <time>2017-07-30T10:58:36Z</time>
      </trkpt>
      <trkpt lat="42.59963" lon="-0.1744">
        <ele>1587.2</ele>
        <time>2017-07-30T10:58:37Z</time>
      </trkpt>
      <trkpt lat="42.59963" lon="-0.17435">
        <ele>1586.9</ele>
        <time>2017-07-30T10:58:38Z</time>
      </trkpt>
      <trkpt lat="42.59963" lon="-0.17429">
        <ele>1586.1</ele>
        <time>2017-07-30T10:58:39Z</time>
      </trkpt>
      <trkpt lat="42.59963" lon="-0.17425">
        <ele>1585.2</ele>
        <time>2017-07-30T10:58:40Z</time>
      </trkpt>
      <trkpt lat="42.59964" lon="-0.1742">
        <ele>1584.5</ele>
        <time>2017-07-30T10:58:42Z</time>
      </trkpt>
      <trkpt lat="42.59964" lon="-0.17416">
        <ele>1583.8</ele>
        <time>2017-07-30T10:58:44Z</time>
      </trkpt>
      <trkpt lat="42.59964" lon="-0.17411">
        <ele>1583.2</ele>
        <time>2017-07-30T10:58:46Z</time>
      </trkpt>
      <trkpt lat="42.59965" lon="-0.17405">
        <ele>1581.9</ele>
        <time>2017-07-30T10:58:48Z</time>
      </trkpt>
      <trkpt lat="42.59966" lon="-0.17401">
        <ele>1581.2</ele>
        <time>2017-07-30T10:58:49Z</time>
      </trkpt>
      <trkpt lat="42.59966" lon="-0.17397">
        <ele>1580.5</ele>
        <time>2017-07-30T10:58:50Z</time>
      </trkpt>
      <trkpt lat="42.59966" lon="-0.17393">
        <ele>1579.9</ele>
        <time>2017-07-30T10:58:51Z</time>
      </trkpt>
      <trkpt lat="42.59967" lon="-0.17387">
        <ele>1579.3</ele>
        <time>2017-07-30T10:58:52Z</time>
      </trkpt>
      <trkpt lat="42.59967" lon="-0.17381">
        <ele>1578.8</ele>
        <time>2017-07-30T10:58:53Z</time>
      </trkpt>
      <trkpt lat="42.59967" lon="-0.17375">
        <ele>1577.6</ele>
        <time>2017-07-30T10:58:54Z</time>
      </trkpt>
      <trkpt lat="42.59967" lon="-0.17368">
        <ele>1577</ele>
        <time>2017-07-30T10:58:55Z</time>
      </trkpt>
      <trkpt lat="42.59967" lon="-0.17363">
        <ele>1576.2</ele>
        <time>2017-07-30T10:58:56Z</time>
      </trkpt>
      <trkpt lat="42.59967" lon="-0.17357">
        <ele>1575.9</ele>
        <time>2017-07-30T10:58:57Z</time>
      </trkpt>
      <trkpt lat="42.59966" lon="-0.17352">
        <ele>1575.4</ele>
        <time>2017-07-30T10:58:58Z</time>
      </trkpt>
      <trkpt lat="42.59965" lon="-0.17347">
        <ele>1575.1</ele>
        <time>2017-07-30T10:58:59Z</time>
      </trkpt>
      <trkpt lat="42.59965" lon="-0.17342">
        <ele>1574.9</ele>
        <time>2017-07-30T10:59:00Z</time>
      </trkpt>
      <trkpt lat="42.59964" lon="-0.17338">
        <ele>1574.8</ele>
        <time>2017-07-30T10:59:01Z</time>
      </trkpt>
      <trkpt lat="42.59962" lon="-0.17335">
        <ele>1574.2</ele>
        <time>2017-07-30T10:59:02Z</time>
      </trkpt>
      <trkpt lat="42.59961" lon="-0.17332">
        <ele>1574.1</ele>
        <time>2017-07-30T10:59:04Z</time>
      </trkpt>
      <trkpt lat="42.59957" lon="-0.17329">
        <ele>1573.5</ele>
        <time>2017-07-30T11:00:45Z</time>
      </trkpt>
      <trkpt lat="42.59955" lon="-0.17326">
        <ele>1572.8</ele>
        <time>2017-07-30T11:00:46Z</time>
      </trkpt>
      <trkpt lat="42.59953" lon="-0.17322">
        <ele>1572.6</ele>
        <time>2017-07-30T11:00:47Z</time>
      </trkpt>
      <trkpt lat="42.59952" lon="-0.17318">
        <ele>1572.5</ele>
        <time>2017-07-30T11:00:48Z</time>
      </trkpt>
      <trkpt lat="42.5995" lon="-0.17312">
        <ele>1572.7</ele>
        <time>2017-07-30T11:00:50Z</time>
      </trkpt>
      <trkpt lat="42.59948" lon="-0.17309">
        <ele>1572.8</ele>
        <time>2017-07-30T11:00:51Z</time>
      </trkpt>
      <trkpt lat="42.59947" lon="-0.17306">
        <ele>1572.9</ele>
        <time>2017-07-30T11:00:52Z</time>
      </trkpt>
      <trkpt lat="42.59944" lon="-0.17303">
        <ele>1573.2</ele>
        <time>2017-07-30T11:00:53Z</time>
      </trkpt>
      <trkpt lat="42.59942" lon="-0.173">
        <ele>1573.5</ele>
        <time>2017-07-30T11:00:54Z</time>
      </trkpt>
      <trkpt lat="42.59941" lon="-0.17296">
        <ele>1573.9</ele>
        <time>2017-07-30T11:00:55Z</time>
      </trkpt>
      <trkpt lat="42.59939" lon="-0.17293">
        <ele>1574.4</ele>
        <time>2017-07-30T11:00:56Z</time>
      </trkpt>
      <trkpt lat="42.59938" lon="-0.17289">
        <ele>1574.7</ele>
        <time>2017-07-30T11:00:57Z</time>
      </trkpt>
      <trkpt lat="42.59937" lon="-0.17285">
        <ele>1575</ele>
        <time>2017-07-30T11:00:58Z</time>
      </trkpt>
      <trkpt lat="42.59936" lon="-0.17281">
        <ele>1575.4</ele>
        <time>2017-07-30T11:00:59Z</time>
      </trkpt>
      <trkpt lat="42.59936" lon="-0.17277">
        <ele>1575.6</ele>
        <time>2017-07-30T11:01:00Z</time>
      </trkpt>
      <trkpt lat="42.59935" lon="-0.17272">
        <ele>1575.8</ele>
        <time>2017-07-30T11:01:02Z</time>
      </trkpt>
      <trkpt lat="42.59935" lon="-0.17267">
        <ele>1575.6</ele>
        <time>2017-07-30T11:01:06Z</time>
      </trkpt>
      <trkpt lat="42.59933" lon="-0.17263">
        <ele>1575.5</ele>
        <time>2017-07-30T11:01:08Z</time>
      </trkpt>
      <trkpt lat="42.59932" lon="-0.1726">
        <ele>1575.5</ele>
        <time>2017-07-30T11:01:10Z</time>
      </trkpt>
      <trkpt lat="42.5993" lon="-0.17255">
        <ele>1575.6</ele>
        <time>2017-07-30T11:01:13Z</time>
      </trkpt>
      <trkpt lat="42.59928" lon="-0.1725">
        <ele>1575.5</ele>
        <time>2017-07-30T11:01:15Z</time>
      </trkpt>
      <trkpt lat="42.59925" lon="-0.17246">
        <ele>1575.4</ele>
        <time>2017-07-30T11:01:17Z</time>
      </trkpt>
      <trkpt lat="42.59923" lon="-0.17241">
        <ele>1575.3</ele>
        <time>2017-07-30T11:01:19Z</time>
      </trkpt>
      <trkpt lat="42.59922" lon="-0.17234">
        <ele>1575.2</ele>
        <time>2017-07-30T11:01:21Z</time>
      </trkpt>
      <trkpt lat="42.59921" lon="-0.1723">
        <ele>1575.1</ele>
        <time>2017-07-30T11:01:22Z</time>
      </trkpt>
      <trkpt lat="42.5992" lon="-0.17226">
        <ele>1575</ele>
        <time>2017-07-30T11:01:23Z</time>
      </trkpt>
      <trkpt lat="42.5992" lon="-0.17223">
        <ele>1574.9</ele>
        <time>2017-07-30T11:01:24Z</time>
      </trkpt>
      <trkpt lat="42.59918" lon="-0.17217">
        <ele>1574.7</ele>
        <time>2017-07-30T11:01:26Z</time>
      </trkpt>
      <trkpt lat="42.59915" lon="-0.17211">
        <ele>1574.4</ele>
        <time>2017-07-30T11:01:28Z</time>
      </trkpt>
      <trkpt lat="42.59913" lon="-0.17206">
        <ele>1574.3</ele>
        <time>2017-07-30T11:01:30Z</time>
      </trkpt>
      <trkpt lat="42.59911" lon="-0.17201">
        <ele>1574.1</ele>
        <time>2017-07-30T11:01:32Z</time>
      </trkpt>
      <trkpt lat="42.59908" lon="-0.17195">
        <ele>1573.9</ele>
        <time>2017-07-30T11:01:34Z</time>
      </trkpt>
      <trkpt lat="42.59907" lon="-0.17191">
        <ele>1573.8</ele>
        <time>2017-07-30T11:01:35Z</time>
      </trkpt>
      <trkpt lat="42.59906" lon="-0.17188">
        <ele>1573.8</ele>
        <time>2017-07-30T11:01:36Z</time>
      </trkpt>
      <trkpt lat="42.59904" lon="-0.17182">
        <ele>1573.7</ele>
        <time>2017-07-30T11:01:38Z</time>
      </trkpt>
      <trkpt lat="42.59901" lon="-0.17175">
        <ele>1573.6</ele>
        <time>2017-07-30T11:01:40Z</time>
      </trkpt>
      <trkpt lat="42.599" lon="-0.17171">
        <ele>1573.4</ele>
        <time>2017-07-30T11:01:41Z</time>
      </trkpt>
      <trkpt lat="42.59898" lon="-0.17166">
        <ele>1573.1</ele>
        <time>2017-07-30T11:01:42Z</time>
      </trkpt>
      <trkpt lat="42.59898" lon="-0.17162">
        <ele>1572.8</ele>
        <time>2017-07-30T11:01:43Z</time>
      </trkpt>
      <trkpt lat="42.59897" lon="-0.17157">
        <ele>1572</ele>
        <time>2017-07-30T11:01:45Z</time>
      </trkpt>
      <trkpt lat="42.59897" lon="-0.17153">
        <ele>1571.3</ele>
        <time>2017-07-30T11:01:48Z</time>
      </trkpt>
      <trkpt lat="42.59897" lon="-0.17149">
        <ele>1570.6</ele>
        <time>2017-07-30T11:01:55Z</time>
      </trkpt>
      <trkpt lat="42.59897" lon="-0.17145">
        <ele>1569.8</ele>
        <time>2017-07-30T11:01:58Z</time>
      </trkpt>
      <trkpt lat="42.59896" lon="-0.17141">
        <ele>1569</ele>
        <time>2017-07-30T11:02:00Z</time>
      </trkpt>
      <trkpt lat="42.59895" lon="-0.17138">
        <ele>1568.3</ele>
        <time>2017-07-30T11:02:02Z</time>
      </trkpt>
      <trkpt lat="42.59892" lon="-0.17138">
        <ele>1567.6</ele>
        <time>2017-07-30T11:02:04Z</time>
      </trkpt>
      <trkpt lat="42.59888" lon="-0.1714">
        <ele>1567.3</ele>
        <time>2017-07-30T11:02:06Z</time>
      </trkpt>
      <trkpt lat="42.59885" lon="-0.17142">
        <ele>1567.1</ele>
        <time>2017-07-30T11:02:08Z</time>
      </trkpt>
      <trkpt lat="42.59883" lon="-0.17137">
        <ele>1566.4</ele>
        <time>2017-07-30T11:02:11Z</time>
      </trkpt>
      <trkpt lat="42.59881" lon="-0.17131">
        <ele>1565.7</ele>
        <time>2017-07-30T11:02:13Z</time>
      </trkpt>
      <trkpt lat="42.59881" lon="-0.17126">
        <ele>1565.1</ele>
        <time>2017-07-30T11:02:15Z</time>
      </trkpt>
      <trkpt lat="42.59879" lon="-0.17122">
        <ele>1564.8</ele>
        <time>2017-07-30T11:02:17Z</time>
      </trkpt>
      <trkpt lat="42.59877" lon="-0.17121">
        <ele>1564.5</ele>
        <time>2017-07-30T11:02:19Z</time>
      </trkpt>
      <trkpt lat="42.59873" lon="-0.17122">
        <ele>1563.4</ele>
        <time>2017-07-30T11:02:21Z</time>
      </trkpt>
      <trkpt lat="42.59868" lon="-0.17123">
        <ele>1562.1</ele>
        <time>2017-07-30T11:02:23Z</time>
      </trkpt>
      <trkpt lat="42.59865" lon="-0.17122">
        <ele>1561.3</ele>
        <time>2017-07-30T11:02:25Z</time>
      </trkpt>
      <trkpt lat="42.59864" lon="-0.17116">
        <ele>1560.3</ele>
        <time>2017-07-30T11:02:27Z</time>
      </trkpt>
      <trkpt lat="42.59862" lon="-0.17111">
        <ele>1559.3</ele>
        <time>2017-07-30T11:02:29Z</time>
      </trkpt>
      <trkpt lat="42.59858" lon="-0.17108">
        <ele>1558.4</ele>
        <time>2017-07-30T11:02:31Z</time>
      </trkpt>
      <trkpt lat="42.59854" lon="-0.17108">
        <ele>1557.4</ele>
        <time>2017-07-30T11:02:33Z</time>
      </trkpt>
      <trkpt lat="42.59849" lon="-0.17109">
        <ele>1556.3</ele>
        <time>2017-07-30T11:02:35Z</time>
      </trkpt>
      <trkpt lat="42.59846" lon="-0.17107">
        <ele>1555.4</ele>
        <time>2017-07-30T11:02:37Z</time>
      </trkpt>
      <trkpt lat="42.59845" lon="-0.171">
        <ele>1554.1</ele>
        <time>2017-07-30T11:02:39Z</time>
      </trkpt>
      <trkpt lat="42.59843" lon="-0.17094">
        <ele>1553.3</ele>
        <time>2017-07-30T11:02:41Z</time>
      </trkpt>
      <trkpt lat="42.59839" lon="-0.17091">
        <ele>1552.8</ele>
        <time>2017-07-30T11:02:43Z</time>
      </trkpt>
      <trkpt lat="42.59837" lon="-0.17087">
        <ele>1551.7</ele>
        <time>2017-07-30T11:02:45Z</time>
      </trkpt>
      <trkpt lat="42.59837" lon="-0.17083">
        <ele>1550.7</ele>
        <time>2017-07-30T11:02:47Z</time>
      </trkpt>
      <trkpt lat="42.59838" lon="-0.17078">
        <ele>1549</ele>
        <time>2017-07-30T11:02:49Z</time>
      </trkpt>
      <trkpt lat="42.59836" lon="-0.17072">
        <ele>1547.7</ele>
        <time>2017-07-30T11:02:51Z</time>
      </trkpt>
      <trkpt lat="42.59832" lon="-0.17069">
        <ele>1547.2</ele>
        <time>2017-07-30T11:02:53Z</time>
      </trkpt>
      <trkpt lat="42.59828" lon="-0.17069">
        <ele>1545.9</ele>
        <time>2017-07-30T11:02:55Z</time>
      </trkpt>
      <trkpt lat="42.59825" lon="-0.17069">
        <ele>1544.6</ele>
        <time>2017-07-30T11:02:57Z</time>
      </trkpt>
      <trkpt lat="42.59821" lon="-0.1707">
        <ele>1542.7</ele>
        <time>2017-07-30T11:02:59Z</time>
      </trkpt>
      <trkpt lat="42.59818" lon="-0.17071">
        <ele>1541.2</ele>
        <time>2017-07-30T11:03:01Z</time>
      </trkpt>
      <trkpt lat="42.59814" lon="-0.17069">
        <ele>1540.5</ele>
        <time>2017-07-30T11:03:03Z</time>
      </trkpt>
      <trkpt lat="42.5981" lon="-0.17069">
        <ele>1539.6</ele>
        <time>2017-07-30T11:03:05Z</time>
      </trkpt>
      <trkpt lat="42.59806" lon="-0.17074">
        <ele>1537.1</ele>
        <time>2017-07-30T11:03:07Z</time>
      </trkpt>
      <trkpt lat="42.59804" lon="-0.17078">
        <ele>1536.1</ele>
        <time>2017-07-30T11:03:08Z</time>
      </trkpt>
      <trkpt lat="42.59802" lon="-0.17083">
        <ele>1535.2</ele>
        <time>2017-07-30T11:03:10Z</time>
      </trkpt>
      <trkpt lat="42.598" lon="-0.17086">
        <ele>1535.1</ele>
        <time>2017-07-30T11:03:12Z</time>
      </trkpt>
      <trkpt lat="42.59798" lon="-0.17085">
        <ele>1535</ele>
        <time>2017-07-30T11:03:15Z</time>
      </trkpt>
      <trkpt lat="42.59796" lon="-0.17077">
        <ele>1534.4</ele>
        <time>2017-07-30T11:03:17Z</time>
      </trkpt>
      <trkpt lat="42.59796" lon="-0.17072">
        <ele>1533.9</ele>
        <time>2017-07-30T11:03:18Z</time>
      </trkpt>
      <trkpt lat="42.59795" lon="-0.17068">
        <ele>1532.7</ele>
        <time>2017-07-30T11:03:19Z</time>
      </trkpt>
      <trkpt lat="42.59795" lon="-0.17063">
        <ele>1531.9</ele>
        <time>2017-07-30T11:03:20Z</time>
      </trkpt>
      <trkpt lat="42.59795" lon="-0.1706">
        <ele>1531.3</ele>
        <time>2017-07-30T11:03:21Z</time>
      </trkpt>
      <trkpt lat="42.59796" lon="-0.17053">
        <ele>1530.9</ele>
        <time>2017-07-30T11:03:23Z</time>
      </trkpt>
      <trkpt lat="42.59797" lon="-0.17048">
        <ele>1530.5</ele>
        <time>2017-07-30T11:03:25Z</time>
      </trkpt>
      <trkpt lat="42.59797" lon="-0.17044">
        <ele>1530.1</ele>
        <time>2017-07-30T11:03:26Z</time>
      </trkpt>
      <trkpt lat="42.59797" lon="-0.1704">
        <ele>1529.7</ele>
        <time>2017-07-30T11:03:27Z</time>
      </trkpt>
      <trkpt lat="42.59797" lon="-0.17034">
        <ele>1528.6</ele>
        <time>2017-07-30T11:03:29Z</time>
      </trkpt>
      <trkpt lat="42.59797" lon="-0.1703">
        <ele>1527.7</ele>
        <time>2017-07-30T11:03:31Z</time>
      </trkpt>
      <trkpt lat="42.59797" lon="-0.17026">
        <ele>1527.3</ele>
        <time>2017-07-30T11:03:33Z</time>
      </trkpt>
      <trkpt lat="42.59797" lon="-0.17021">
        <ele>1526.8</ele>
        <time>2017-07-30T11:03:35Z</time>
      </trkpt>
      <trkpt lat="42.59798" lon="-0.17016">
        <ele>1525.7</ele>
        <time>2017-07-30T11:03:37Z</time>
      </trkpt>
      <trkpt lat="42.598" lon="-0.17012">
        <ele>1523.7</ele>
        <time>2017-07-30T11:03:39Z</time>
      </trkpt>
      <trkpt lat="42.598" lon="-0.17007">
        <ele>1522.9</ele>
        <time>2017-07-30T11:03:41Z</time>
      </trkpt>
      <trkpt lat="42.59798" lon="-0.17004">
        <ele>1522.1</ele>
        <time>2017-07-30T11:03:43Z</time>
      </trkpt>
      <trkpt lat="42.59794" lon="-0.17003">
        <ele>1521.5</ele>
        <time>2017-07-30T11:03:45Z</time>
      </trkpt>
      <trkpt lat="42.5979" lon="-0.17005">
        <ele>1521.2</ele>
        <time>2017-07-30T11:03:47Z</time>
      </trkpt>
      <trkpt lat="42.59786" lon="-0.17009">
        <ele>1520</ele>
        <time>2017-07-30T11:03:49Z</time>
      </trkpt>
      <trkpt lat="42.59782" lon="-0.17013">
        <ele>1518.1</ele>
        <time>2017-07-30T11:03:51Z</time>
      </trkpt>
      <trkpt lat="42.59779" lon="-0.17017">
        <ele>1517.6</ele>
        <time>2017-07-30T11:03:53Z</time>
      </trkpt>
      <trkpt lat="42.59777" lon="-0.17014">
        <ele>1517.2</ele>
        <time>2017-07-30T11:03:56Z</time>
      </trkpt>
      <trkpt lat="42.59777" lon="-0.17009">
        <ele>1516.6</ele>
        <time>2017-07-30T11:03:58Z</time>
      </trkpt>
      <trkpt lat="42.59778" lon="-0.17003">
        <ele>1516.3</ele>
        <time>2017-07-30T11:04:00Z</time>
      </trkpt>
      <trkpt lat="42.59779" lon="-0.16996">
        <ele>1515.9</ele>
        <time>2017-07-30T11:04:02Z</time>
      </trkpt>
      <trkpt lat="42.59779" lon="-0.16991">
        <ele>1514.2</ele>
        <time>2017-07-30T11:04:04Z</time>
      </trkpt>
      <trkpt lat="42.59781" lon="-0.16987">
        <ele>1513.3</ele>
        <time>2017-07-30T11:04:15Z</time>
      </trkpt>
      <trkpt lat="42.59781" lon="-0.16983">
        <ele>1512.6</ele>
        <time>2017-07-30T11:04:20Z</time>
      </trkpt>
      <trkpt lat="42.59779" lon="-0.16979">
        <ele>1511.9</ele>
        <time>2017-07-30T11:04:25Z</time>
      </trkpt>
      <trkpt lat="42.5978" lon="-0.16975">
        <ele>1511.1</ele>
        <time>2017-07-30T11:04:29Z</time>
      </trkpt>
      <trkpt lat="42.59782" lon="-0.16971">
        <ele>1510.4</ele>
        <time>2017-07-30T11:04:34Z</time>
      </trkpt>
      <trkpt lat="42.59783" lon="-0.16967">
        <ele>1510.4</ele>
        <time>2017-07-30T11:04:38Z</time>
      </trkpt>
      <trkpt lat="42.59779" lon="-0.16966">
        <ele>1509.6</ele>
        <time>2017-07-30T11:04:46Z</time>
      </trkpt>
      <trkpt lat="42.59776" lon="-0.16968">
        <ele>1508.7</ele>
        <time>2017-07-30T11:04:48Z</time>
      </trkpt>
      <trkpt lat="42.59773" lon="-0.16969">
        <ele>1507.8</ele>
        <time>2017-07-30T11:04:50Z</time>
      </trkpt>
      <trkpt lat="42.5977" lon="-0.1697">
        <ele>1507.3</ele>
        <time>2017-07-30T11:04:52Z</time>
      </trkpt>
      <trkpt lat="42.59767" lon="-0.16974">
        <ele>1506.8</ele>
        <time>2017-07-30T11:04:54Z</time>
      </trkpt>
      <trkpt lat="42.59764" lon="-0.16976">
        <ele>1504.5</ele>
        <time>2017-07-30T11:04:57Z</time>
      </trkpt>
      <trkpt lat="42.59764" lon="-0.16971">
        <ele>1502.9</ele>
        <time>2017-07-30T11:05:16Z</time>
      </trkpt>
      <trkpt lat="42.59764" lon="-0.16967">
        <ele>1503.2</ele>
        <time>2017-07-30T11:05:26Z</time>
      </trkpt>
      <trkpt lat="42.59764" lon="-0.16963">
        <ele>1502.4</ele>
        <time>2017-07-30T11:05:31Z</time>
      </trkpt>
      <trkpt lat="42.59764" lon="-0.1696">
        <ele>1501.1</ele>
        <time>2017-07-30T11:05:40Z</time>
      </trkpt>
      <trkpt lat="42.59764" lon="-0.16956">
        <ele>1501</ele>
        <time>2017-07-30T11:05:52Z</time>
      </trkpt>
      <trkpt lat="42.59765" lon="-0.16952">
        <ele>1500.7</ele>
        <time>2017-07-30T11:05:56Z</time>
      </trkpt>
      <trkpt lat="42.59766" lon="-0.16948">
        <ele>1500</ele>
        <time>2017-07-30T11:06:01Z</time>
      </trkpt>
      <trkpt lat="42.59767" lon="-0.16944">
        <ele>1499.2</ele>
        <time>2017-07-30T11:06:07Z</time>
      </trkpt>
      <trkpt lat="42.59766" lon="-0.1694">
        <ele>1498.1</ele>
        <time>2017-07-30T11:06:13Z</time>
      </trkpt>
      <trkpt lat="42.59764" lon="-0.16936">
        <ele>1497</ele>
        <time>2017-07-30T11:06:17Z</time>
      </trkpt>
      <trkpt lat="42.59765" lon="-0.16932">
        <ele>1496</ele>
        <time>2017-07-30T11:06:23Z</time>
      </trkpt>
      <trkpt lat="42.59765" lon="-0.16928">
        <ele>1494.7</ele>
        <time>2017-07-30T11:06:29Z</time>
      </trkpt>
      <trkpt lat="42.59766" lon="-0.16924">
        <ele>1493.7</ele>
        <time>2017-07-30T11:06:34Z</time>
      </trkpt>
      <trkpt lat="42.59767" lon="-0.1692">
        <ele>1492.4</ele>
        <time>2017-07-30T11:06:41Z</time>
      </trkpt>
      <trkpt lat="42.59769" lon="-0.16917">
        <ele>1491.4</ele>
        <time>2017-07-30T11:06:44Z</time>
      </trkpt>
      <trkpt lat="42.5977" lon="-0.16914">
        <ele>1490.2</ele>
        <time>2017-07-30T11:06:53Z</time>
      </trkpt>
      <trkpt lat="42.59772" lon="-0.1691">
        <ele>1488.7</ele>
        <time>2017-07-30T11:07:00Z</time>
      </trkpt>
      <trkpt lat="42.5977" lon="-0.16906">
        <ele>1487.3</ele>
        <time>2017-07-30T11:07:05Z</time>
      </trkpt>
      <trkpt lat="42.59773" lon="-0.16903">
        <ele>1485.6</ele>
        <time>2017-07-30T11:07:09Z</time>
      </trkpt>
      <trkpt lat="42.59776" lon="-0.16902">
        <ele>1484.3</ele>
        <time>2017-07-30T11:07:12Z</time>
      </trkpt>
      <trkpt lat="42.59777" lon="-0.16898">
        <ele>1483.5</ele>
        <time>2017-07-30T11:07:16Z</time>
      </trkpt>
      <trkpt lat="42.59774" lon="-0.16895">
        <ele>1483</ele>
        <time>2017-07-30T11:07:21Z</time>
      </trkpt>
      <trkpt lat="42.59771" lon="-0.16893">
        <ele>1482.9</ele>
        <time>2017-07-30T11:07:23Z</time>
      </trkpt>
      <trkpt lat="42.59767" lon="-0.16894">
        <ele>1482</ele>
        <time>2017-07-30T11:07:25Z</time>
      </trkpt>
      <trkpt lat="42.59764" lon="-0.16895">
        <ele>1480.7</ele>
        <time>2017-07-30T11:07:27Z</time>
      </trkpt>
      <trkpt lat="42.59763" lon="-0.16892">
        <ele>1480.5</ele>
        <time>2017-07-30T11:07:34Z</time>
      </trkpt>
      <trkpt lat="42.59765" lon="-0.16888">
        <ele>1480.6</ele>
        <time>2017-07-30T11:07:41Z</time>
      </trkpt>
      <trkpt lat="42.59766" lon="-0.16883">
        <ele>1479.9</ele>
        <time>2017-07-30T11:07:44Z</time>
      </trkpt>
      <trkpt lat="42.59768" lon="-0.16878">
        <ele>1477.6</ele>
        <time>2017-07-30T11:07:46Z</time>
      </trkpt>
      <trkpt lat="42.5977" lon="-0.16873">
        <ele>1476.6</ele>
        <time>2017-07-30T11:07:48Z</time>
      </trkpt>
      <trkpt lat="42.5977" lon="-0.16868">
        <ele>1476.5</ele>
        <time>2017-07-30T11:07:50Z</time>
      </trkpt>
      <trkpt lat="42.59767" lon="-0.16864">
        <ele>1474.7</ele>
        <time>2017-07-30T11:07:52Z</time>
      </trkpt>
      <trkpt lat="42.59769" lon="-0.16861">
        <ele>1473.7</ele>
        <time>2017-07-30T11:07:57Z</time>
      </trkpt>
      <trkpt lat="42.59768" lon="-0.16856">
        <ele>1473</ele>
        <time>2017-07-30T11:08:05Z</time>
      </trkpt>
      <trkpt lat="42.59765" lon="-0.16855">
        <ele>1472.3</ele>
        <time>2017-07-30T11:08:08Z</time>
      </trkpt>
      <trkpt lat="42.59763" lon="-0.16852">
        <ele>1471.7</ele>
        <time>2017-07-30T11:08:11Z</time>
      </trkpt>
      <trkpt lat="42.59764" lon="-0.16849">
        <ele>1471.2</ele>
        <time>2017-07-30T11:08:17Z</time>
      </trkpt>
      <trkpt lat="42.59767" lon="-0.16847">
        <ele>1470.8</ele>
        <time>2017-07-30T11:08:21Z</time>
      </trkpt>
      <trkpt lat="42.59768" lon="-0.16844">
        <ele>1469.5</ele>
        <time>2017-07-30T11:08:26Z</time>
      </trkpt>
      <trkpt lat="42.59768" lon="-0.1684">
        <ele>1468.1</ele>
        <time>2017-07-30T11:08:30Z</time>
      </trkpt>
      <trkpt lat="42.59767" lon="-0.16836">
        <ele>1466.8</ele>
        <time>2017-07-30T11:08:34Z</time>
      </trkpt>
      <trkpt lat="42.59764" lon="-0.16832">
        <ele>1467.2</ele>
        <time>2017-07-30T11:08:36Z</time>
      </trkpt>
      <trkpt lat="42.59761" lon="-0.16829">
        <ele>1466.8</ele>
        <time>2017-07-30T11:08:38Z</time>
      </trkpt>
      <trkpt lat="42.59764" lon="-0.16827">
        <ele>1465.6</ele>
        <time>2017-07-30T11:08:47Z</time>
      </trkpt>
      <trkpt lat="42.59768" lon="-0.16827">
        <ele>1464.1</ele>
        <time>2017-07-30T11:08:49Z</time>
      </trkpt>
      <trkpt lat="42.59772" lon="-0.16828">
        <ele>1463.5</ele>
        <time>2017-07-30T11:08:51Z</time>
      </trkpt>
      <trkpt lat="42.59776" lon="-0.16828">
        <ele>1463.2</ele>
        <time>2017-07-30T11:08:52Z</time>
      </trkpt>
      <trkpt lat="42.59778" lon="-0.16828">
        <ele>1461.8</ele>
        <time>2017-07-30T11:08:53Z</time>
      </trkpt>
      <trkpt lat="42.59783" lon="-0.16827">
        <ele>1459.4</ele>
        <time>2017-07-30T11:08:55Z</time>
      </trkpt>
      <trkpt lat="42.59788" lon="-0.16827">
        <ele>1458.1</ele>
        <time>2017-07-30T11:08:57Z</time>
      </trkpt>
      <trkpt lat="42.59793" lon="-0.16827">
        <ele>1456.6</ele>
        <time>2017-07-30T11:08:59Z</time>
      </trkpt>
      <trkpt lat="42.59797" lon="-0.16826">
        <ele>1456.6</ele>
        <time>2017-07-30T11:09:01Z</time>
      </trkpt>
      <trkpt lat="42.59798" lon="-0.16822">
        <ele>1456.8</ele>
        <time>2017-07-30T11:09:11Z</time>
      </trkpt>
      <trkpt lat="42.59797" lon="-0.16819">
        <ele>1457</ele>
        <time>2017-07-30T11:09:17Z</time>
      </trkpt>
      <trkpt lat="42.59796" lon="-0.16815">
        <ele>1457</ele>
        <time>2017-07-30T11:09:26Z</time>
      </trkpt>
      <trkpt lat="42.59794" lon="-0.16812">
        <ele>1456.9</ele>
        <time>2017-07-30T11:09:31Z</time>
      </trkpt>
      <trkpt lat="42.59793" lon="-0.16808">
        <ele>1456.8</ele>
        <time>2017-07-30T11:09:40Z</time>
      </trkpt>
      <trkpt lat="42.5979" lon="-0.16803">
        <ele>1456</ele>
        <time>2017-07-30T11:09:42Z</time>
      </trkpt>
      <trkpt lat="42.59788" lon="-0.168">
        <ele>1455.5</ele>
        <time>2017-07-30T11:09:44Z</time>
      </trkpt>
      <trkpt lat="42.59785" lon="-0.16797">
        <ele>1454.6</ele>
        <time>2017-07-30T11:09:52Z</time>
      </trkpt>
      <trkpt lat="42.59782" lon="-0.16792">
        <ele>1453.6</ele>
        <time>2017-07-30T11:09:54Z</time>
      </trkpt>
      <trkpt lat="42.5978" lon="-0.16787">
        <ele>1452.6</ele>
        <time>2017-07-30T11:09:56Z</time>
      </trkpt>
      <trkpt lat="42.59779" lon="-0.16782">
        <ele>1451.5</ele>
        <time>2017-07-30T11:09:58Z</time>
      </trkpt>
      <trkpt lat="42.59776" lon="-0.16778">
        <ele>1449.1</ele>
        <time>2017-07-30T11:10:00Z</time>
      </trkpt>
      <trkpt lat="42.59779" lon="-0.16777">
        <ele>1447.3</ele>
        <time>2017-07-30T11:10:10Z</time>
      </trkpt>
      <trkpt lat="42.59779" lon="-0.16773">
        <ele>1445.8</ele>
        <time>2017-07-30T11:10:26Z</time>
      </trkpt>
      <trkpt lat="42.59778" lon="-0.1677">
        <ele>1444.3</ele>
        <time>2017-07-30T11:10:30Z</time>
      </trkpt>
      <trkpt lat="42.59777" lon="-0.16767">
        <ele>1442.8</ele>
        <time>2017-07-30T11:10:35Z</time>
      </trkpt>
      <trkpt lat="42.59775" lon="-0.16763">
        <ele>1442</ele>
        <time>2017-07-30T11:10:44Z</time>
      </trkpt>
      <trkpt lat="42.59772" lon="-0.16757">
        <ele>1440.7</ele>
        <time>2017-07-30T11:10:47Z</time>
      </trkpt>
      <trkpt lat="42.5977" lon="-0.16753">
        <ele>1439.2</ele>
        <time>2017-07-30T11:10:48Z</time>
      </trkpt>
      <trkpt lat="42.59768" lon="-0.1675">
        <ele>1437.6</ele>
        <time>2017-07-30T11:10:49Z</time>
      </trkpt>
      <trkpt lat="42.59766" lon="-0.16747">
        <ele>1435.7</ele>
        <time>2017-07-30T11:10:50Z</time>
      </trkpt>
      <trkpt lat="42.59764" lon="-0.16744">
        <ele>1433.3</ele>
        <time>2017-07-30T11:10:51Z</time>
      </trkpt>
      <trkpt lat="42.59762" lon="-0.1674">
        <ele>1430.7</ele>
        <time>2017-07-30T11:10:52Z</time>
      </trkpt>
      <trkpt lat="42.59759" lon="-0.16738">
        <ele>1429.3</ele>
        <time>2017-07-30T11:10:53Z</time>
      </trkpt>
      <trkpt lat="42.59756" lon="-0.16733">
        <ele>1427.7</ele>
        <time>2017-07-30T11:10:55Z</time>
      </trkpt>
      <trkpt lat="42.59752" lon="-0.16729">
        <ele>1425.8</ele>
        <time>2017-07-30T11:10:57Z</time>
      </trkpt>
      <trkpt lat="42.5975" lon="-0.16725">
        <ele>1423.8</ele>
        <time>2017-07-30T11:10:59Z</time>
      </trkpt>
      <trkpt lat="42.59748" lon="-0.16722">
        <ele>1422.4</ele>
        <time>2017-07-30T11:11:01Z</time>
      </trkpt>
      <trkpt lat="42.59746" lon="-0.16719">
        <ele>1421.7</ele>
        <time>2017-07-30T11:11:03Z</time>
      </trkpt>
      <trkpt lat="42.59744" lon="-0.16713">
        <ele>1421.1</ele>
        <time>2017-07-30T11:11:05Z</time>
      </trkpt>
      <trkpt lat="42.59741" lon="-0.16707">
        <ele>1420.7</ele>
        <time>2017-07-30T11:11:07Z</time>
      </trkpt>
      <trkpt lat="42.59738" lon="-0.16703">
        <ele>1420.5</ele>
        <time>2017-07-30T11:11:09Z</time>
      </trkpt>
      <trkpt lat="42.59734" lon="-0.16699">
        <ele>1420.4</ele>
        <time>2017-07-30T11:11:11Z</time>
      </trkpt>
      <trkpt lat="42.59731" lon="-0.16696">
        <ele>1419.9</ele>
        <time>2017-07-30T11:11:13Z</time>
      </trkpt>
      <trkpt lat="42.59728" lon="-0.16692">
        <ele>1419.5</ele>
        <time>2017-07-30T11:11:15Z</time>
      </trkpt>
      <trkpt lat="42.59726" lon="-0.16688">
        <ele>1419.3</ele>
        <time>2017-07-30T11:11:16Z</time>
      </trkpt>
      <trkpt lat="42.59725" lon="-0.16685">
        <ele>1419.2</ele>
        <time>2017-07-30T11:11:17Z</time>
      </trkpt>
      <trkpt lat="42.59723" lon="-0.16681">
        <ele>1419</ele>
        <time>2017-07-30T11:11:18Z</time>
      </trkpt>
      <trkpt lat="42.59721" lon="-0.16677">
        <ele>1418.7</ele>
        <time>2017-07-30T11:11:19Z</time>
      </trkpt>
      <trkpt lat="42.59719" lon="-0.16672">
        <ele>1417.9</ele>
        <time>2017-07-30T11:11:20Z</time>
      </trkpt>
      <trkpt lat="42.59717" lon="-0.16667">
        <ele>1417</ele>
        <time>2017-07-30T11:11:21Z</time>
      </trkpt>
      <trkpt lat="42.59715" lon="-0.16663">
        <ele>1416.4</ele>
        <time>2017-07-30T11:11:22Z</time>
      </trkpt>
      <trkpt lat="42.59713" lon="-0.16659">
        <ele>1415.8</ele>
        <time>2017-07-30T11:11:23Z</time>
      </trkpt>
      <trkpt lat="42.5971" lon="-0.16655">
        <ele>1415.2</ele>
        <time>2017-07-30T11:11:24Z</time>
      </trkpt>
      <trkpt lat="42.59707" lon="-0.16651">
        <ele>1414.6</ele>
        <time>2017-07-30T11:11:25Z</time>
      </trkpt>
      <trkpt lat="42.59705" lon="-0.16647">
        <ele>1413.9</ele>
        <time>2017-07-30T11:11:26Z</time>
      </trkpt>
      <trkpt lat="42.59702" lon="-0.16644">
        <ele>1413.3</ele>
        <time>2017-07-30T11:11:27Z</time>
      </trkpt>
      <trkpt lat="42.597" lon="-0.16642">
        <ele>1412.7</ele>
        <time>2017-07-30T11:11:28Z</time>
      </trkpt>
      <trkpt lat="42.59697" lon="-0.1664">
        <ele>1412.2</ele>
        <time>2017-07-30T11:11:29Z</time>
      </trkpt>
      <trkpt lat="42.59693" lon="-0.16638">
        <ele>1411.7</ele>
        <time>2017-07-30T11:11:30Z</time>
      </trkpt>
      <trkpt lat="42.59689" lon="-0.16636">
        <ele>1411</ele>
        <time>2017-07-30T11:11:31Z</time>
      </trkpt>
      <trkpt lat="42.59686" lon="-0.16633">
        <ele>1410.3</ele>
        <time>2017-07-30T11:11:32Z</time>
      </trkpt>
      <trkpt lat="42.59683" lon="-0.16632">
        <ele>1409.8</ele>
        <time>2017-07-30T11:11:33Z</time>
      </trkpt>
      <trkpt lat="42.5968" lon="-0.1663">
        <ele>1409.7</ele>
        <time>2017-07-30T11:11:34Z</time>
      </trkpt>
      <trkpt lat="42.59677" lon="-0.16629">
        <ele>1409.5</ele>
        <time>2017-07-30T11:11:35Z</time>
      </trkpt>
      <trkpt lat="42.59673" lon="-0.16627">
        <ele>1409.3</ele>
        <time>2017-07-30T11:11:36Z</time>
      </trkpt>
      <trkpt lat="42.5967" lon="-0.16626">
        <ele>1409.1</ele>
        <time>2017-07-30T11:11:37Z</time>
      </trkpt>
      <trkpt lat="42.59666" lon="-0.16624">
        <ele>1409.1</ele>
        <time>2017-07-30T11:11:38Z</time>
      </trkpt>
      <trkpt lat="42.59663" lon="-0.16622">
        <ele>1409.1</ele>
        <time>2017-07-30T11:11:39Z</time>
      </trkpt>
      <trkpt lat="42.5966" lon="-0.1662">
        <ele>1409.1</ele>
        <time>2017-07-30T11:11:40Z</time>
      </trkpt>
      <trkpt lat="42.59655" lon="-0.16617">
        <ele>1409.1</ele>
        <time>2017-07-30T11:11:42Z</time>
      </trkpt>
      <trkpt lat="42.59651" lon="-0.16614">
        <ele>1409.1</ele>
        <time>2017-07-30T11:11:44Z</time>
      </trkpt>
      <trkpt lat="42.59646" lon="-0.16613">
        <ele>1409</ele>
        <time>2017-07-30T11:11:46Z</time>
      </trkpt>
      <trkpt lat="42.59643" lon="-0.16614">
        <ele>1409</ele>
        <time>2017-07-30T11:11:47Z</time>
      </trkpt>
      <trkpt lat="42.5964" lon="-0.16614">
        <ele>1408.9</ele>
        <time>2017-07-30T11:11:48Z</time>
      </trkpt>
      <trkpt lat="42.59637" lon="-0.16615">
        <ele>1408.7</ele>
        <time>2017-07-30T11:11:49Z</time>
      </trkpt>
      <trkpt lat="42.59633" lon="-0.16616">
        <ele>1408.5</ele>
        <time>2017-07-30T11:11:50Z</time>
      </trkpt>
      <trkpt lat="42.5963" lon="-0.16616">
        <ele>1408.2</ele>
        <time>2017-07-30T11:11:51Z</time>
      </trkpt>
      <trkpt lat="42.59626" lon="-0.16616">
        <ele>1407.9</ele>
        <time>2017-07-30T11:11:52Z</time>
      </trkpt>
      <trkpt lat="42.59622" lon="-0.16615">
        <ele>1407.5</ele>
        <time>2017-07-30T11:11:54Z</time>
      </trkpt>
      <trkpt lat="42.59619" lon="-0.16613">
        <ele>1407.1</ele>
        <time>2017-07-30T11:11:56Z</time>
      </trkpt>
      <trkpt lat="42.59617" lon="-0.1661">
        <ele>1406.5</ele>
        <time>2017-07-30T11:11:58Z</time>
      </trkpt>
      <trkpt lat="42.59613" lon="-0.16606">
        <ele>1406</ele>
        <time>2017-07-30T11:12:00Z</time>
      </trkpt>
      <trkpt lat="42.59611" lon="-0.16602">
        <ele>1405.6</ele>
        <time>2017-07-30T11:12:02Z</time>
      </trkpt>
      <trkpt lat="42.59608" lon="-0.16598">
        <ele>1405.1</ele>
        <time>2017-07-30T11:12:04Z</time>
      </trkpt>
      <trkpt lat="42.59605" lon="-0.16595">
        <ele>1404.5</ele>
        <time>2017-07-30T11:12:06Z</time>
      </trkpt>
      <trkpt lat="42.596" lon="-0.16593">
        <ele>1403.9</ele>
        <time>2017-07-30T11:12:08Z</time>
      </trkpt>
      <trkpt lat="42.59596" lon="-0.16592">
        <ele>1403.3</ele>
        <time>2017-07-30T11:12:10Z</time>
      </trkpt>
      <trkpt lat="42.59592" lon="-0.1659">
        <ele>1402.6</ele>
        <time>2017-07-30T11:12:12Z</time>
      </trkpt>
      <trkpt lat="42.59589" lon="-0.16588">
        <ele>1401.8</ele>
        <time>2017-07-30T11:12:14Z</time>
      </trkpt>
      <trkpt lat="42.59585" lon="-0.16586">
        <ele>1401</ele>
        <time>2017-07-30T11:12:16Z</time>
      </trkpt>
      <trkpt lat="42.59581" lon="-0.16583">
        <ele>1400.4</ele>
        <time>2017-07-30T11:12:18Z</time>
      </trkpt>
      <trkpt lat="42.59578" lon="-0.1658">
        <ele>1400.2</ele>
        <time>2017-07-30T11:12:20Z</time>
      </trkpt>
      <trkpt lat="42.59577" lon="-0.16576">
        <ele>1399.8</ele>
        <time>2017-07-30T11:12:28Z</time>
      </trkpt>
      <trkpt lat="42.59575" lon="-0.16574">
        <ele>1399.4</ele>
        <time>2017-07-30T11:12:35Z</time>
      </trkpt>
      <trkpt lat="42.59573" lon="-0.16571">
        <ele>1398.9</ele>
        <time>2017-07-30T11:12:41Z</time>
      </trkpt>
      <trkpt lat="42.5957" lon="-0.1657">
        <ele>1398.5</ele>
        <time>2017-07-30T11:12:52Z</time>
      </trkpt>
      <trkpt lat="42.59567" lon="-0.16571">
        <ele>1398.1</ele>
        <time>2017-07-30T11:12:55Z</time>
      </trkpt>
      <trkpt lat="42.59564" lon="-0.16569">
        <ele>1397.7</ele>
        <time>2017-07-30T11:13:01Z</time>
      </trkpt>
      <trkpt lat="42.59561" lon="-0.16566">
        <ele>1397.4</ele>
        <time>2017-07-30T11:13:05Z</time>
      </trkpt>
      <trkpt lat="42.59558" lon="-0.16565">
        <ele>1397</ele>
        <time>2017-07-30T11:13:09Z</time>
      </trkpt>
      <trkpt lat="42.59555" lon="-0.16564">
        <ele>1396.8</ele>
        <time>2017-07-30T11:13:11Z</time>
      </trkpt>
      <trkpt lat="42.59553" lon="-0.16563">
        <ele>1396.5</ele>
        <time>2017-07-30T11:13:13Z</time>
      </trkpt>
      <trkpt lat="42.59549" lon="-0.16559">
        <ele>1395.8</ele>
        <time>2017-07-30T11:13:15Z</time>
      </trkpt>
      <trkpt lat="42.59546" lon="-0.16554">
        <ele>1394.3</ele>
        <time>2017-07-30T11:13:17Z</time>
      </trkpt>
      <trkpt lat="42.59542" lon="-0.1655">
        <ele>1393.1</ele>
        <time>2017-07-30T11:13:19Z</time>
      </trkpt>
      <trkpt lat="42.5954" lon="-0.16548">
        <ele>1392.6</ele>
        <time>2017-07-30T11:13:20Z</time>
      </trkpt>
      <trkpt lat="42.59535" lon="-0.16546">
        <ele>1391.9</ele>
        <time>2017-07-30T11:13:22Z</time>
      </trkpt>
      <trkpt lat="42.59532" lon="-0.16542">
        <ele>1391.3</ele>
        <time>2017-07-30T11:13:24Z</time>
      </trkpt>
      <trkpt lat="42.59531" lon="-0.16538">
        <ele>1391.1</ele>
        <time>2017-07-30T11:13:25Z</time>
      </trkpt>
      <trkpt lat="42.59529" lon="-0.16535">
        <ele>1390.9</ele>
        <time>2017-07-30T11:13:26Z</time>
      </trkpt>
      <trkpt lat="42.59525" lon="-0.16531">
        <ele>1389.6</ele>
        <time>2017-07-30T11:13:28Z</time>
      </trkpt>
      <trkpt lat="42.59522" lon="-0.16527">
        <ele>1387.5</ele>
        <time>2017-07-30T11:13:30Z</time>
      </trkpt>
      <trkpt lat="42.5952" lon="-0.16522">
        <ele>1386.5</ele>
        <time>2017-07-30T11:13:32Z</time>
      </trkpt>
      <trkpt lat="42.59518" lon="-0.16518">
        <ele>1385.7</ele>
        <time>2017-07-30T11:13:34Z</time>
      </trkpt>
      <trkpt lat="42.59517" lon="-0.16514">
        <ele>1385.2</ele>
        <time>2017-07-30T11:13:47Z</time>
      </trkpt>
      <trkpt lat="42.59515" lon="-0.16511">
        <ele>1384.8</ele>
        <time>2017-07-30T11:13:59Z</time>
      </trkpt>
      <trkpt lat="42.59512" lon="-0.16509">
        <ele>1384.3</ele>
        <time>2017-07-30T11:14:07Z</time>
      </trkpt>
      <trkpt lat="42.59509" lon="-0.16503">
        <ele>1383.4</ele>
        <time>2017-07-30T11:14:54Z</time>
      </trkpt>
      <trkpt lat="42.5951" lon="-0.16499">
        <ele>1383</ele>
        <time>2017-07-30T11:15:00Z</time>
      </trkpt>
      <trkpt lat="42.59507" lon="-0.16497">
        <ele>1382.4</ele>
        <time>2017-07-30T11:15:03Z</time>
      </trkpt>
      <trkpt lat="42.59504" lon="-0.16494">
        <ele>1381.9</ele>
        <time>2017-07-30T11:15:07Z</time>
      </trkpt>
      <trkpt lat="42.59504" lon="-0.16491">
        <ele>1381.4</ele>
        <time>2017-07-30T11:15:19Z</time>
      </trkpt>
      <trkpt lat="42.59504" lon="-0.16486">
        <ele>1380.9</ele>
        <time>2017-07-30T11:15:27Z</time>
      </trkpt>
      <trkpt lat="42.59505" lon="-0.16483">
        <ele>1380.4</ele>
        <time>2017-07-30T11:15:31Z</time>
      </trkpt>
      <trkpt lat="42.59505" lon="-0.16479">
        <ele>1379.8</ele>
        <time>2017-07-30T11:15:38Z</time>
      </trkpt>
      <trkpt lat="42.59501" lon="-0.16478">
        <ele>1378.7</ele>
        <time>2017-07-30T11:17:28Z</time>
      </trkpt>
      <trkpt lat="42.59497" lon="-0.1648">
        <ele>1377.9</ele>
        <time>2017-07-30T11:17:30Z</time>
      </trkpt>
      <trkpt lat="42.59495" lon="-0.16477">
        <ele>1377.6</ele>
        <time>2017-07-30T11:17:37Z</time>
      </trkpt>
      <trkpt lat="42.59492" lon="-0.16475">
        <ele>1377.1</ele>
        <time>2017-07-30T11:17:42Z</time>
      </trkpt>
      <trkpt lat="42.59489" lon="-0.16475">
        <ele>1376.4</ele>
        <time>2017-07-30T11:17:47Z</time>
      </trkpt>
      <trkpt lat="42.59485" lon="-0.16475">
        <ele>1375.6</ele>
        <time>2017-07-30T11:17:50Z</time>
      </trkpt>
      <trkpt lat="42.59481" lon="-0.16476">
        <ele>1374.6</ele>
        <time>2017-07-30T11:17:52Z</time>
      </trkpt>
      <trkpt lat="42.59477" lon="-0.16477">
        <ele>1373.6</ele>
        <time>2017-07-30T11:17:54Z</time>
      </trkpt>
      <trkpt lat="42.59473" lon="-0.16478">
        <ele>1372.5</ele>
        <time>2017-07-30T11:17:56Z</time>
      </trkpt>
      <trkpt lat="42.5947" lon="-0.16478">
        <ele>1371.7</ele>
        <time>2017-07-30T11:17:59Z</time>
      </trkpt>
      <trkpt lat="42.59467" lon="-0.16477">
        <ele>1370.8</ele>
        <time>2017-07-30T11:18:05Z</time>
      </trkpt>
      <trkpt lat="42.59464" lon="-0.16476">
        <ele>1370</ele>
        <time>2017-07-30T11:18:09Z</time>
      </trkpt>
      <trkpt lat="42.59461" lon="-0.16477">
        <ele>1369.3</ele>
        <time>2017-07-30T11:18:18Z</time>
      </trkpt>
      <trkpt lat="42.59459" lon="-0.16474">
        <ele>1368.9</ele>
        <time>2017-07-30T11:18:27Z</time>
      </trkpt>
      <trkpt lat="42.59457" lon="-0.16471">
        <ele>1368.5</ele>
        <time>2017-07-30T11:18:34Z</time>
      </trkpt>
      <trkpt lat="42.59455" lon="-0.16468">
        <ele>1368.2</ele>
        <time>2017-07-30T11:18:38Z</time>
      </trkpt>
      <trkpt lat="42.59453" lon="-0.16466">
        <ele>1367.6</ele>
        <time>2017-07-30T11:18:44Z</time>
      </trkpt>
      <trkpt lat="42.5945" lon="-0.16464">
        <ele>1366.7</ele>
        <time>2017-07-30T11:18:48Z</time>
      </trkpt>
      <trkpt lat="42.59448" lon="-0.16461">
        <ele>1366</ele>
        <time>2017-07-30T11:18:55Z</time>
      </trkpt>
      <trkpt lat="42.59445" lon="-0.1646">
        <ele>1365.1</ele>
        <time>2017-07-30T11:19:03Z</time>
      </trkpt>
      <trkpt lat="42.59443" lon="-0.16461">
        <ele>1364</ele>
        <time>2017-07-30T11:19:07Z</time>
      </trkpt>
      <trkpt lat="42.59441" lon="-0.16458">
        <ele>1362.9</ele>
        <time>2017-07-30T11:19:11Z</time>
      </trkpt>
      <trkpt lat="42.5944" lon="-0.16454">
        <ele>1361.6</ele>
        <time>2017-07-30T11:19:20Z</time>
      </trkpt>
      <trkpt lat="42.59437" lon="-0.16452">
        <ele>1360.4</ele>
        <time>2017-07-30T11:19:30Z</time>
      </trkpt>
      <trkpt lat="42.59435" lon="-0.16453">
        <ele>1359.2</ele>
        <time>2017-07-30T11:19:33Z</time>
      </trkpt>
      <trkpt lat="42.59431" lon="-0.16454">
        <ele>1357.7</ele>
        <time>2017-07-30T11:19:36Z</time>
      </trkpt>
      <trkpt lat="42.59427" lon="-0.16454">
        <ele>1356.5</ele>
        <time>2017-07-30T11:19:39Z</time>
      </trkpt>
      <trkpt lat="42.59425" lon="-0.16451">
        <ele>1355.4</ele>
        <time>2017-07-30T11:19:41Z</time>
      </trkpt>
      <trkpt lat="42.59424" lon="-0.16446">
        <ele>1354.5</ele>
        <time>2017-07-30T11:19:43Z</time>
      </trkpt>
      <trkpt lat="42.59426" lon="-0.16442">
        <ele>1353.8</ele>
        <time>2017-07-30T11:19:46Z</time>
      </trkpt>
      <trkpt lat="42.59429" lon="-0.16439">
        <ele>1353.1</ele>
        <time>2017-07-30T11:19:48Z</time>
      </trkpt>
      <trkpt lat="42.59431" lon="-0.16436">
        <ele>1352.5</ele>
        <time>2017-07-30T11:19:50Z</time>
      </trkpt>
      <trkpt lat="42.59434" lon="-0.16432">
        <ele>1352</ele>
        <time>2017-07-30T11:19:52Z</time>
      </trkpt>
      <trkpt lat="42.59436" lon="-0.16429">
        <ele>1351.6</ele>
        <time>2017-07-30T11:19:55Z</time>
      </trkpt>
      <trkpt lat="42.59438" lon="-0.16426">
        <ele>1351</ele>
        <time>2017-07-30T11:20:02Z</time>
      </trkpt>
      <trkpt lat="42.5944" lon="-0.16423">
        <ele>1350.4</ele>
        <time>2017-07-30T11:20:04Z</time>
      </trkpt>
      <trkpt lat="42.59442" lon="-0.1642">
        <ele>1349.8</ele>
        <time>2017-07-30T11:20:06Z</time>
      </trkpt>
      <trkpt lat="42.59444" lon="-0.16416">
        <ele>1349.1</ele>
        <time>2017-07-30T11:20:08Z</time>
      </trkpt>
      <trkpt lat="42.59447" lon="-0.16412">
        <ele>1348.2</ele>
        <time>2017-07-30T11:20:10Z</time>
      </trkpt>
      <trkpt lat="42.5945" lon="-0.16409">
        <ele>1347.2</ele>
        <time>2017-07-30T11:20:12Z</time>
      </trkpt>
      <trkpt lat="42.59453" lon="-0.16405">
        <ele>1346.2</ele>
        <time>2017-07-30T11:20:14Z</time>
      </trkpt>
      <trkpt lat="42.59456" lon="-0.16401">
        <ele>1345.6</ele>
        <time>2017-07-30T11:20:16Z</time>
      </trkpt>
      <trkpt lat="42.59458" lon="-0.16399">
        <ele>1344.9</ele>
        <time>2017-07-30T11:20:19Z</time>
      </trkpt>
      <trkpt lat="42.59461" lon="-0.16396">
        <ele>1344.2</ele>
        <time>2017-07-30T11:20:22Z</time>
      </trkpt>
      <trkpt lat="42.59464" lon="-0.16391">
        <ele>1344</ele>
        <time>2017-07-30T11:20:24Z</time>
      </trkpt>
      <trkpt lat="42.59467" lon="-0.16387">
        <ele>1343.2</ele>
        <time>2017-07-30T11:20:26Z</time>
      </trkpt>
      <trkpt lat="42.59471" lon="-0.16382">
        <ele>1342.2</ele>
        <time>2017-07-30T11:20:28Z</time>
      </trkpt>
      <trkpt lat="42.59473" lon="-0.16379">
        <ele>1342.3</ele>
        <time>2017-07-30T11:20:29Z</time>
      </trkpt>
      <trkpt lat="42.59475" lon="-0.16376">
        <ele>1342.5</ele>
        <time>2017-07-30T11:20:30Z</time>
      </trkpt>
      <trkpt lat="42.59476" lon="-0.16372">
        <ele>1342.7</ele>
        <time>2017-07-30T11:20:31Z</time>
      </trkpt>
      <trkpt lat="42.59479" lon="-0.16367">
        <ele>1342.2</ele>
        <time>2017-07-30T11:20:33Z</time>
      </trkpt>
      <trkpt lat="42.59481" lon="-0.16362">
        <ele>1341.8</ele>
        <time>2017-07-30T11:20:35Z</time>
      </trkpt>
      <trkpt lat="42.59482" lon="-0.16357">
        <ele>1341.4</ele>
        <time>2017-07-30T11:20:37Z</time>
      </trkpt>
      <trkpt lat="42.59482" lon="-0.16352">
        <ele>1341</ele>
        <time>2017-07-30T11:20:39Z</time>
      </trkpt>
      <trkpt lat="42.59483" lon="-0.16346">
        <ele>1340.4</ele>
        <time>2017-07-30T11:20:41Z</time>
      </trkpt>
      <trkpt lat="42.59483" lon="-0.1634">
        <ele>1339.7</ele>
        <time>2017-07-30T11:20:43Z</time>
      </trkpt>
      <trkpt lat="42.59482" lon="-0.16335">
        <ele>1338.9</ele>
        <time>2017-07-30T11:20:45Z</time>
      </trkpt>
      <trkpt lat="42.59482" lon="-0.16329">
        <ele>1338</ele>
        <time>2017-07-30T11:20:47Z</time>
      </trkpt>
      <trkpt lat="42.59482" lon="-0.16325">
        <ele>1337.3</ele>
        <time>2017-07-30T11:20:49Z</time>
      </trkpt>
      <trkpt lat="42.59482" lon="-0.16321">
        <ele>1336.6</ele>
        <time>2017-07-30T11:20:51Z</time>
      </trkpt>
      <trkpt lat="42.59483" lon="-0.16315">
        <ele>1335.7</ele>
        <time>2017-07-30T11:20:53Z</time>
      </trkpt>
      <trkpt lat="42.59483" lon="-0.16311">
        <ele>1335.1</ele>
        <time>2017-07-30T11:20:55Z</time>
      </trkpt>
      <trkpt lat="42.59483" lon="-0.16305">
        <ele>1334.6</ele>
        <time>2017-07-30T11:20:57Z</time>
      </trkpt>
      <trkpt lat="42.59481" lon="-0.163">
        <ele>1334</ele>
        <time>2017-07-30T11:20:59Z</time>
      </trkpt>
      <trkpt lat="42.5948" lon="-0.16297">
        <ele>1333.5</ele>
        <time>2017-07-30T11:21:02Z</time>
      </trkpt>
      <trkpt lat="42.59479" lon="-0.16292">
        <ele>1332.9</ele>
        <time>2017-07-30T11:21:07Z</time>
      </trkpt>
      <trkpt lat="42.5948" lon="-0.16288">
        <ele>1332.3</ele>
        <time>2017-07-30T11:21:13Z</time>
      </trkpt>
      <trkpt lat="42.5948" lon="-0.16285">
        <ele>1331.6</ele>
        <time>2017-07-30T11:21:15Z</time>
      </trkpt>
      <trkpt lat="42.59479" lon="-0.1628">
        <ele>1330.6</ele>
        <time>2017-07-30T11:21:17Z</time>
      </trkpt>
      <trkpt lat="42.59478" lon="-0.16273">
        <ele>1330</ele>
        <time>2017-07-30T11:21:19Z</time>
      </trkpt>
      <trkpt lat="42.59477" lon="-0.16267">
        <ele>1329.5</ele>
        <time>2017-07-30T11:21:21Z</time>
      </trkpt>
      <trkpt lat="42.59477" lon="-0.16261">
        <ele>1328.8</ele>
        <time>2017-07-30T11:21:23Z</time>
      </trkpt>
      <trkpt lat="42.59477" lon="-0.16256">
        <ele>1328.2</ele>
        <time>2017-07-30T11:21:25Z</time>
      </trkpt>
      <trkpt lat="42.59477" lon="-0.16251">
        <ele>1327.1</ele>
        <time>2017-07-30T11:21:27Z</time>
      </trkpt>
      <trkpt lat="42.59477" lon="-0.16247">
        <ele>1326.2</ele>
        <time>2017-07-30T11:21:29Z</time>
      </trkpt>
      <trkpt lat="42.59476" lon="-0.16243">
        <ele>1325.3</ele>
        <time>2017-07-30T11:21:35Z</time>
      </trkpt>
      <trkpt lat="42.59475" lon="-0.16239">
        <ele>1324.7</ele>
        <time>2017-07-30T11:21:37Z</time>
      </trkpt>
      <trkpt lat="42.59475" lon="-0.16235">
        <ele>1324.2</ele>
        <time>2017-07-30T11:21:39Z</time>
      </trkpt>
      <trkpt lat="42.59476" lon="-0.16232">
        <ele>1323.7</ele>
        <time>2017-07-30T11:21:46Z</time>
      </trkpt>
      <trkpt lat="42.59476" lon="-0.16228">
        <ele>1322.9</ele>
        <time>2017-07-30T11:21:48Z</time>
      </trkpt>
      <trkpt lat="42.59476" lon="-0.16223">
        <ele>1322</ele>
        <time>2017-07-30T11:21:50Z</time>
      </trkpt>
      <trkpt lat="42.59476" lon="-0.16216">
        <ele>1320.7</ele>
        <time>2017-07-30T11:21:52Z</time>
      </trkpt>
      <trkpt lat="42.59476" lon="-0.16211">
        <ele>1319.4</ele>
        <time>2017-07-30T11:21:54Z</time>
      </trkpt>
      <trkpt lat="42.59476" lon="-0.16206">
        <ele>1318.4</ele>
        <time>2017-07-30T11:22:01Z</time>
      </trkpt>
      <trkpt lat="42.59476" lon="-0.16202">
        <ele>1317.9</ele>
        <time>2017-07-30T11:22:05Z</time>
      </trkpt>
      <trkpt lat="42.59477" lon="-0.16197">
        <ele>1317.2</ele>
        <time>2017-07-30T11:22:08Z</time>
      </trkpt>
      <trkpt lat="42.59479" lon="-0.16192">
        <ele>1315.7</ele>
        <time>2017-07-30T11:22:10Z</time>
      </trkpt>
      <trkpt lat="42.5948" lon="-0.16188">
        <ele>1314.3</ele>
        <time>2017-07-30T11:22:12Z</time>
      </trkpt>
      <trkpt lat="42.59481" lon="-0.16184">
        <ele>1313.3</ele>
        <time>2017-07-30T11:22:14Z</time>
      </trkpt>
      <trkpt lat="42.59483" lon="-0.16178">
        <ele>1312.6</ele>
        <time>2017-07-30T11:22:16Z</time>
      </trkpt>
      <trkpt lat="42.59486" lon="-0.16173">
        <ele>1310.7</ele>
        <time>2017-07-30T11:22:18Z</time>
      </trkpt>
      <trkpt lat="42.5949" lon="-0.16168">
        <ele>1308.2</ele>
        <time>2017-07-30T11:22:20Z</time>
      </trkpt>
      <trkpt lat="42.59492" lon="-0.16166">
        <ele>1307.7</ele>
        <time>2017-07-30T11:22:21Z</time>
      </trkpt>
      <trkpt lat="42.59494" lon="-0.16163">
        <ele>1307.1</ele>
        <time>2017-07-30T11:22:22Z</time>
      </trkpt>
      <trkpt lat="42.59496" lon="-0.16159">
        <ele>1306.5</ele>
        <time>2017-07-30T11:22:23Z</time>
      </trkpt>
      <trkpt lat="42.59498" lon="-0.16156">
        <ele>1305.8</ele>
        <time>2017-07-30T11:22:24Z</time>
      </trkpt>
      <trkpt lat="42.595" lon="-0.16151">
        <ele>1304.8</ele>
        <time>2017-07-30T11:22:26Z</time>
      </trkpt>
      <trkpt lat="42.59503" lon="-0.16147">
        <ele>1303.3</ele>
        <time>2017-07-30T11:22:28Z</time>
      </trkpt>
      <trkpt lat="42.59505" lon="-0.16144">
        <ele>1302.2</ele>
        <time>2017-07-30T11:22:30Z</time>
      </trkpt>
      <trkpt lat="42.59507" lon="-0.1614">
        <ele>1301.9</ele>
        <time>2017-07-30T11:22:32Z</time>
      </trkpt>
      <trkpt lat="42.5951" lon="-0.16137">
        <ele>1302.4</ele>
        <time>2017-07-30T11:22:34Z</time>
      </trkpt>
      <trkpt lat="42.59514" lon="-0.1613">
        <ele>1302.5</ele>
        <time>2017-07-30T11:22:36Z</time>
      </trkpt>
      <trkpt lat="42.59516" lon="-0.16127">
        <ele>1302.3</ele>
        <time>2017-07-30T11:22:37Z</time>
      </trkpt>
      <trkpt lat="42.59519" lon="-0.16123">
        <ele>1302</ele>
        <time>2017-07-30T11:22:39Z</time>
      </trkpt>
      <trkpt lat="42.59522" lon="-0.16121">
        <ele>1301.8</ele>
        <time>2017-07-30T11:22:41Z</time>
      </trkpt>
      <trkpt lat="42.59525" lon="-0.16121">
        <ele>1301.5</ele>
        <time>2017-07-30T11:22:44Z</time>
      </trkpt>
      <trkpt lat="42.59522" lon="-0.16119">
        <ele>1301</ele>
        <time>2017-07-30T11:22:52Z</time>
      </trkpt>
      <trkpt lat="42.59519" lon="-0.16119">
        <ele>1300.6</ele>
        <time>2017-07-30T11:22:55Z</time>
      </trkpt>
      <trkpt lat="42.59523" lon="-0.16117">
        <ele>1300.5</ele>
        <time>2017-07-30T11:23:01Z</time>
      </trkpt>
      <trkpt lat="42.59527" lon="-0.16116">
        <ele>1301.1</ele>
        <time>2017-07-30T11:23:03Z</time>
      </trkpt>
      <trkpt lat="42.59531" lon="-0.16116">
        <ele>1301.1</ele>
        <time>2017-07-30T11:23:05Z</time>
      </trkpt>
      <trkpt lat="42.59536" lon="-0.16116">
        <ele>1300.4</ele>
        <time>2017-07-30T11:23:07Z</time>
      </trkpt>
      <trkpt lat="42.59538" lon="-0.16111">
        <ele>1299.9</ele>
        <time>2017-07-30T11:23:10Z</time>
      </trkpt>
      <trkpt lat="42.59536" lon="-0.16105">
        <ele>1299.6</ele>
        <time>2017-07-30T11:23:12Z</time>
      </trkpt>
      <trkpt lat="42.59534" lon="-0.16101">
        <ele>1298.5</ele>
        <time>2017-07-30T11:23:13Z</time>
      </trkpt>
      <trkpt lat="42.59531" lon="-0.16098">
        <ele>1297.4</ele>
        <time>2017-07-30T11:23:14Z</time>
      </trkpt>
      <trkpt lat="42.59529" lon="-0.16096">
        <ele>1296.2</ele>
        <time>2017-07-30T11:23:15Z</time>
      </trkpt>
      <trkpt lat="42.59525" lon="-0.16093">
        <ele>1294.5</ele>
        <time>2017-07-30T11:23:17Z</time>
      </trkpt>
      <trkpt lat="42.59521" lon="-0.1609">
        <ele>1292.9</ele>
        <time>2017-07-30T11:23:19Z</time>
      </trkpt>
      <trkpt lat="42.59519" lon="-0.16086">
        <ele>1291.8</ele>
        <time>2017-07-30T11:23:21Z</time>
      </trkpt>
      <trkpt lat="42.59517" lon="-0.16083">
        <ele>1290.9</ele>
        <time>2017-07-30T11:23:46Z</time>
      </trkpt>
      <trkpt lat="42.59519" lon="-0.16081">
        <ele>1290.1</ele>
        <time>2017-07-30T11:23:56Z</time>
      </trkpt>
      <trkpt lat="42.59519" lon="-0.16077">
        <ele>1289.5</ele>
        <time>2017-07-30T11:24:03Z</time>
      </trkpt>
      <trkpt lat="42.59517" lon="-0.16074">
        <ele>1288.8</ele>
        <time>2017-07-30T11:24:08Z</time>
      </trkpt>
      <trkpt lat="42.59516" lon="-0.1607">
        <ele>1288.2</ele>
        <time>2017-07-30T11:24:12Z</time>
      </trkpt>
      <trkpt lat="42.59514" lon="-0.16066">
        <ele>1287.4</ele>
        <time>2017-07-30T11:24:16Z</time>
      </trkpt>
      <trkpt lat="42.59511" lon="-0.16063">
        <ele>1286.7</ele>
        <time>2017-07-30T11:24:18Z</time>
      </trkpt>
      <trkpt lat="42.59508" lon="-0.16063">
        <ele>1287</ele>
        <time>2017-07-30T11:24:20Z</time>
      </trkpt>
      <trkpt lat="42.59505" lon="-0.16065">
        <ele>1287.8</ele>
        <time>2017-07-30T11:24:22Z</time>
      </trkpt>
      <trkpt lat="42.59502" lon="-0.16063">
        <ele>1288</ele>
        <time>2017-07-30T11:24:25Z</time>
      </trkpt>
      <trkpt lat="42.59503" lon="-0.16059">
        <ele>1287.8</ele>
        <time>2017-07-30T11:24:28Z</time>
      </trkpt>
      <trkpt lat="42.59506" lon="-0.16056">
        <ele>1286.9</ele>
        <time>2017-07-30T11:24:30Z</time>
      </trkpt>
      <trkpt lat="42.59508" lon="-0.16052">
        <ele>1284.9</ele>
        <time>2017-07-30T11:24:32Z</time>
      </trkpt>
      <trkpt lat="42.5951" lon="-0.16049">
        <ele>1283.2</ele>
        <time>2017-07-30T11:24:34Z</time>
      </trkpt>
      <trkpt lat="42.59514" lon="-0.16047">
        <ele>1281.6</ele>
        <time>2017-07-30T11:24:37Z</time>
      </trkpt>
      <trkpt lat="42.59517" lon="-0.16047">
        <ele>1280.4</ele>
        <time>2017-07-30T11:24:39Z</time>
      </trkpt>
      <trkpt lat="42.5952" lon="-0.16046">
        <ele>1279.3</ele>
        <time>2017-07-30T11:24:41Z</time>
      </trkpt>
      <trkpt lat="42.59519" lon="-0.16041">
        <ele>1277.8</ele>
        <time>2017-07-30T11:24:44Z</time>
      </trkpt>
      <trkpt lat="42.59516" lon="-0.16038">
        <ele>1276.2</ele>
        <time>2017-07-30T11:24:46Z</time>
      </trkpt>
      <trkpt lat="42.59512" lon="-0.16035">
        <ele>1274</ele>
        <time>2017-07-30T11:24:48Z</time>
      </trkpt>
      <trkpt lat="42.59508" lon="-0.16032">
        <ele>1272.2</ele>
        <time>2017-07-30T11:24:50Z</time>
      </trkpt>
      <trkpt lat="42.59504" lon="-0.16031">
        <ele>1270.6</ele>
        <time>2017-07-30T11:24:52Z</time>
      </trkpt>
      <trkpt lat="42.59501" lon="-0.1603">
        <ele>1269.6</ele>
        <time>2017-07-30T11:24:53Z</time>
      </trkpt>
      <trkpt lat="42.59498" lon="-0.16029">
        <ele>1268.6</ele>
        <time>2017-07-30T11:24:55Z</time>
      </trkpt>
      <trkpt lat="42.59501" lon="-0.16027">
        <ele>1267.6</ele>
        <time>2017-07-30T11:25:04Z</time>
      </trkpt>
      <trkpt lat="42.59503" lon="-0.16025">
        <ele>1266</ele>
        <time>2017-07-30T11:25:09Z</time>
      </trkpt>
      <trkpt lat="42.59506" lon="-0.16023">
        <ele>1264.5</ele>
        <time>2017-07-30T11:25:16Z</time>
      </trkpt>
      <trkpt lat="42.59507" lon="-0.16018">
        <ele>1263.2</ele>
        <time>2017-07-30T11:25:21Z</time>
      </trkpt>
      <trkpt lat="42.59505" lon="-0.16014">
        <ele>1262.1</ele>
        <time>2017-07-30T11:25:24Z</time>
      </trkpt>
      <trkpt lat="42.59503" lon="-0.16011">
        <ele>1261.3</ele>
        <time>2017-07-30T11:25:27Z</time>
      </trkpt>
      <trkpt lat="42.595" lon="-0.16009">
        <ele>1260.8</ele>
        <time>2017-07-30T11:25:29Z</time>
      </trkpt>
      <trkpt lat="42.59498" lon="-0.16005">
        <ele>1260.2</ele>
        <time>2017-07-30T11:25:32Z</time>
      </trkpt>
      <trkpt lat="42.59498" lon="-0.16001">
        <ele>1259</ele>
        <time>2017-07-30T11:25:37Z</time>
      </trkpt>
      <trkpt lat="42.59498" lon="-0.15997">
        <ele>1257.8</ele>
        <time>2017-07-30T11:25:45Z</time>
      </trkpt>
      <trkpt lat="42.595" lon="-0.15995">
        <ele>1256.7</ele>
        <time>2017-07-30T11:25:52Z</time>
      </trkpt>
      <trkpt lat="42.59503" lon="-0.15993">
        <ele>1255.7</ele>
        <time>2017-07-30T11:25:57Z</time>
      </trkpt>
      <trkpt lat="42.59506" lon="-0.15991">
        <ele>1254.9</ele>
        <time>2017-07-30T11:26:01Z</time>
      </trkpt>
      <trkpt lat="42.59509" lon="-0.15991">
        <ele>1253.7</ele>
        <time>2017-07-30T11:26:05Z</time>
      </trkpt>
      <trkpt lat="42.59512" lon="-0.15989">
        <ele>1252.5</ele>
        <time>2017-07-30T11:26:11Z</time>
      </trkpt>
      <trkpt lat="42.59511" lon="-0.15985">
        <ele>1251.1</ele>
        <time>2017-07-30T11:26:14Z</time>
      </trkpt>
      <trkpt lat="42.59508" lon="-0.15981">
        <ele>1249.6</ele>
        <time>2017-07-30T11:26:16Z</time>
      </trkpt>
      <trkpt lat="42.59505" lon="-0.15978">
        <ele>1248.1</ele>
        <time>2017-07-30T11:26:18Z</time>
      </trkpt>
      <trkpt lat="42.59502" lon="-0.15974">
        <ele>1246.1</ele>
        <time>2017-07-30T11:26:20Z</time>
      </trkpt>
      <trkpt lat="42.59498" lon="-0.15969">
        <ele>1244.7</ele>
        <time>2017-07-30T11:26:22Z</time>
      </trkpt>
      <trkpt lat="42.59495" lon="-0.15968">
        <ele>1243.9</ele>
        <time>2017-07-30T11:26:23Z</time>
      </trkpt>
      <trkpt lat="42.59492" lon="-0.15966">
        <ele>1242.5</ele>
        <time>2017-07-30T11:26:24Z</time>
      </trkpt>
      <trkpt lat="42.59489" lon="-0.15966">
        <ele>1241.2</ele>
        <time>2017-07-30T11:26:25Z</time>
      </trkpt>
      <trkpt lat="42.59484" lon="-0.15965">
        <ele>1237.8</ele>
        <time>2017-07-30T11:26:27Z</time>
      </trkpt>
      <trkpt lat="42.59488" lon="-0.15964">
        <ele>1234.8</ele>
        <time>2017-07-30T11:26:39Z</time>
      </trkpt>
      <trkpt lat="42.59492" lon="-0.15962">
        <ele>1232.8</ele>
        <time>2017-07-30T11:26:41Z</time>
      </trkpt>
      <trkpt lat="42.59496" lon="-0.15958">
        <ele>1230.7</ele>
        <time>2017-07-30T11:26:43Z</time>
      </trkpt>
      <trkpt lat="42.59499" lon="-0.15954">
        <ele>1227.8</ele>
        <time>2017-07-30T11:26:45Z</time>
      </trkpt>
      <trkpt lat="42.59502" lon="-0.15952">
        <ele>1226</ele>
        <time>2017-07-30T11:26:48Z</time>
      </trkpt>
      <trkpt lat="42.59504" lon="-0.15952">
        <ele>1224.5</ele>
        <time>2017-07-30T11:26:53Z</time>
      </trkpt>
      <trkpt lat="42.59507" lon="-0.1595">
        <ele>1224.3</ele>
        <time>2017-07-30T11:26:56Z</time>
      </trkpt>
      <trkpt lat="42.5951" lon="-0.1595">
        <ele>1224.1</ele>
        <time>2017-07-30T11:26:58Z</time>
      </trkpt>
      <trkpt lat="42.59513" lon="-0.15948">
        <ele>1223.8</ele>
        <time>2017-07-30T11:27:00Z</time>
      </trkpt>
      <trkpt lat="42.59516" lon="-0.15947">
        <ele>1223.6</ele>
        <time>2017-07-30T11:27:02Z</time>
      </trkpt>
      <trkpt lat="42.5952" lon="-0.15945">
        <ele>1223.4</ele>
        <time>2017-07-30T11:27:05Z</time>
      </trkpt>
      <trkpt lat="42.59523" lon="-0.15946">
        <ele>1223.9</ele>
        <time>2017-07-30T11:27:07Z</time>
      </trkpt>
      <trkpt lat="42.59527" lon="-0.15948">
        <ele>1224.4</ele>
        <time>2017-07-30T11:27:09Z</time>
      </trkpt>
      <trkpt lat="42.5953" lon="-0.15951">
        <ele>1225.4</ele>
        <time>2017-07-30T11:27:11Z</time>
      </trkpt>
      <trkpt lat="42.59533" lon="-0.15952">
        <ele>1226.3</ele>
        <time>2017-07-30T11:27:14Z</time>
      </trkpt>
      <trkpt lat="42.59536" lon="-0.15954">
        <ele>1227.1</ele>
        <time>2017-07-30T11:27:16Z</time>
      </trkpt>
      <trkpt lat="42.5954" lon="-0.15956">
        <ele>1226.1</ele>
        <time>2017-07-30T11:27:18Z</time>
      </trkpt>
      <trkpt lat="42.59543" lon="-0.15957">
        <ele>1225.5</ele>
        <time>2017-07-30T11:27:20Z</time>
      </trkpt>
      <trkpt lat="42.59545" lon="-0.15959">
        <ele>1225.4</ele>
        <time>2017-07-30T11:27:22Z</time>
      </trkpt>
      <trkpt lat="42.59549" lon="-0.15963">
        <ele>1226.5</ele>
        <time>2017-07-30T11:27:24Z</time>
      </trkpt>
      <trkpt lat="42.59552" lon="-0.15964">
        <ele>1226.3</ele>
        <time>2017-07-30T11:27:27Z</time>
      </trkpt>
      <trkpt lat="42.59552" lon="-0.1596">
        <ele>1226.1</ele>
        <time>2017-07-30T11:27:30Z</time>
      </trkpt>
      <trkpt lat="42.59553" lon="-0.15956">
        <ele>1225.6</ele>
        <time>2017-07-30T11:27:33Z</time>
      </trkpt>
      <trkpt lat="42.59557" lon="-0.15958">
        <ele>1225</ele>
        <time>2017-07-30T11:27:36Z</time>
      </trkpt>
      <trkpt lat="42.59551" lon="-0.15959">
        <ele>1222.7</ele>
        <time>2017-07-30T11:29:01Z</time>
      </trkpt>
      <trkpt lat="42.59556" lon="-0.15961">
        <ele>1221.1</ele>
        <time>2017-07-30T11:29:03Z</time>
      </trkpt>
      <trkpt lat="42.59559" lon="-0.15962">
        <ele>1219.7</ele>
        <time>2017-07-30T11:29:05Z</time>
      </trkpt>
      <trkpt lat="42.59564" lon="-0.15962">
        <ele>1218.5</ele>
        <time>2017-07-30T11:29:07Z</time>
      </trkpt>
      <trkpt lat="42.59568" lon="-0.15961">
        <ele>1216.9</ele>
        <time>2017-07-30T11:29:09Z</time>
      </trkpt>
      <trkpt lat="42.59572" lon="-0.15959">
        <ele>1213.9</ele>
        <time>2017-07-30T11:29:11Z</time>
      </trkpt>
      <trkpt lat="42.59575" lon="-0.15958">
        <ele>1211.3</ele>
        <time>2017-07-30T11:29:13Z</time>
      </trkpt>
      <trkpt lat="42.59577" lon="-0.15955">
        <ele>1209.2</ele>
        <time>2017-07-30T11:29:15Z</time>
      </trkpt>
      <trkpt lat="42.59579" lon="-0.15951">
        <ele>1206.7</ele>
        <time>2017-07-30T11:29:17Z</time>
      </trkpt>
      <trkpt lat="42.59581" lon="-0.15947">
        <ele>1204.4</ele>
        <time>2017-07-30T11:29:19Z</time>
      </trkpt>
      <trkpt lat="42.59583" lon="-0.15944">
        <ele>1202.9</ele>
        <time>2017-07-30T11:29:21Z</time>
      </trkpt>
      <trkpt lat="42.59586" lon="-0.15941">
        <ele>1200.8</ele>
        <time>2017-07-30T11:29:24Z</time>
      </trkpt>
      <trkpt lat="42.59588" lon="-0.15938">
        <ele>1199.1</ele>
        <time>2017-07-30T11:29:26Z</time>
      </trkpt>
      <trkpt lat="42.5959" lon="-0.15933">
        <ele>1197.3</ele>
        <time>2017-07-30T11:29:28Z</time>
      </trkpt>
      <trkpt lat="42.59591" lon="-0.15929">
        <ele>1195.7</ele>
        <time>2017-07-30T11:29:30Z</time>
      </trkpt>
      <trkpt lat="42.59594" lon="-0.15925">
        <ele>1195.6</ele>
        <time>2017-07-30T11:29:32Z</time>
      </trkpt>
      <trkpt lat="42.59597" lon="-0.15923">
        <ele>1195.5</ele>
        <time>2017-07-30T11:29:34Z</time>
      </trkpt>
      <trkpt lat="42.59602" lon="-0.1592">
        <ele>1194.6</ele>
        <time>2017-07-30T11:29:36Z</time>
      </trkpt>
      <trkpt lat="42.59604" lon="-0.15919">
        <ele>1194.1</ele>
        <time>2017-07-30T11:29:38Z</time>
      </trkpt>
      <trkpt lat="42.59608" lon="-0.15919">
        <ele>1193.7</ele>
        <time>2017-07-30T11:29:41Z</time>
      </trkpt>
      <trkpt lat="42.5961" lon="-0.15917">
        <ele>1194.1</ele>
        <time>2017-07-30T11:29:43Z</time>
      </trkpt>
      <trkpt lat="42.59613" lon="-0.15916">
        <ele>1194.5</ele>
        <time>2017-07-30T11:29:46Z</time>
      </trkpt>
      <trkpt lat="42.59617" lon="-0.15916">
        <ele>1195</ele>
        <time>2017-07-30T11:29:48Z</time>
      </trkpt>
      <trkpt lat="42.59622" lon="-0.15917">
        <ele>1195.4</ele>
        <time>2017-07-30T11:29:50Z</time>
      </trkpt>
      <trkpt lat="42.59625" lon="-0.15917">
        <ele>1195.7</ele>
        <time>2017-07-30T11:29:51Z</time>
      </trkpt>
      <trkpt lat="42.59627" lon="-0.15917">
        <ele>1195</ele>
        <time>2017-07-30T11:29:52Z</time>
      </trkpt>
      <trkpt lat="42.59632" lon="-0.15918">
        <ele>1194</ele>
        <time>2017-07-30T11:29:54Z</time>
      </trkpt>
      <trkpt lat="42.59637" lon="-0.1592">
        <ele>1193.2</ele>
        <time>2017-07-30T11:29:56Z</time>
      </trkpt>
      <trkpt lat="42.59642" lon="-0.1592">
        <ele>1192.7</ele>
        <time>2017-07-30T11:29:58Z</time>
      </trkpt>
      <trkpt lat="42.59647" lon="-0.15919">
        <ele>1190.1</ele>
        <time>2017-07-30T11:30:00Z</time>
      </trkpt>
      <trkpt lat="42.59651" lon="-0.15917">
        <ele>1187.6</ele>
        <time>2017-07-30T11:30:02Z</time>
      </trkpt>
      <trkpt lat="42.59655" lon="-0.15916">
        <ele>1186.4</ele>
        <time>2017-07-30T11:30:04Z</time>
      </trkpt>
      <trkpt lat="42.59658" lon="-0.15915">
        <ele>1185.3</ele>
        <time>2017-07-30T11:30:07Z</time>
      </trkpt>
      <trkpt lat="42.59661" lon="-0.15914">
        <ele>1183.6</ele>
        <time>2017-07-30T11:30:09Z</time>
      </trkpt>
      <trkpt lat="42.59666" lon="-0.15912">
        <ele>1180.8</ele>
        <time>2017-07-30T11:30:11Z</time>
      </trkpt>
      <trkpt lat="42.5967" lon="-0.1591">
        <ele>1178.9</ele>
        <time>2017-07-30T11:30:13Z</time>
      </trkpt>
      <trkpt lat="42.59675" lon="-0.15907">
        <ele>1176.8</ele>
        <time>2017-07-30T11:30:15Z</time>
      </trkpt>
      <trkpt lat="42.59678" lon="-0.15905">
        <ele>1175.3</ele>
        <time>2017-07-30T11:30:16Z</time>
      </trkpt>
      <trkpt lat="42.59682" lon="-0.15904">
        <ele>1173.6</ele>
        <time>2017-07-30T11:30:17Z</time>
      </trkpt>
      <trkpt lat="42.59685" lon="-0.15904">
        <ele>1172.9</ele>
        <time>2017-07-30T11:30:18Z</time>
      </trkpt>
      <trkpt lat="42.59689" lon="-0.15904">
        <ele>1172.2</ele>
        <time>2017-07-30T11:30:19Z</time>
      </trkpt>
      <trkpt lat="42.59692" lon="-0.15905">
        <ele>1171.8</ele>
        <time>2017-07-30T11:30:20Z</time>
      </trkpt>
      <trkpt lat="42.59696" lon="-0.15906">
        <ele>1171.6</ele>
        <time>2017-07-30T11:30:21Z</time>
      </trkpt>
      <trkpt lat="42.597" lon="-0.15907">
        <ele>1171.4</ele>
        <time>2017-07-30T11:30:22Z</time>
      </trkpt>
      <trkpt lat="42.59703" lon="-0.15909">
        <ele>1171.5</ele>
        <time>2017-07-30T11:30:23Z</time>
      </trkpt>
      <trkpt lat="42.59705" lon="-0.15911">
        <ele>1171.5</ele>
        <time>2017-07-30T11:30:24Z</time>
      </trkpt>
      <trkpt lat="42.59709" lon="-0.15914">
        <ele>1172.3</ele>
        <time>2017-07-30T11:30:26Z</time>
      </trkpt>
      <trkpt lat="42.59711" lon="-0.15916">
        <ele>1173.1</ele>
        <time>2017-07-30T11:30:28Z</time>
      </trkpt>
      <trkpt lat="42.59714" lon="-0.15919">
        <ele>1174</ele>
        <time>2017-07-30T11:30:30Z</time>
      </trkpt>
      <trkpt lat="42.59716" lon="-0.15924">
        <ele>1174.2</ele>
        <time>2017-07-30T11:30:32Z</time>
      </trkpt>
      <trkpt lat="42.59718" lon="-0.15929">
        <ele>1174.6</ele>
        <time>2017-07-30T11:30:34Z</time>
      </trkpt>
      <trkpt lat="42.59721" lon="-0.15934">
        <ele>1175.6</ele>
        <time>2017-07-30T11:30:36Z</time>
      </trkpt>
      <trkpt lat="42.59725" lon="-0.15939">
        <ele>1176.6</ele>
        <time>2017-07-30T11:30:38Z</time>
      </trkpt>
      <trkpt lat="42.59728" lon="-0.15943">
        <ele>1177.2</ele>
        <time>2017-07-30T11:30:40Z</time>
      </trkpt>
      <trkpt lat="42.59732" lon="-0.15947">
        <ele>1178.1</ele>
        <time>2017-07-30T11:30:42Z</time>
      </trkpt>
      <trkpt lat="42.59736" lon="-0.15951">
        <ele>1179.5</ele>
        <time>2017-07-30T11:30:44Z</time>
      </trkpt>
      <trkpt lat="42.59739" lon="-0.15953">
        <ele>1179.5</ele>
        <time>2017-07-30T11:30:45Z</time>
      </trkpt>
      <trkpt lat="42.59742" lon="-0.15955">
        <ele>1179.3</ele>
        <time>2017-07-30T11:30:46Z</time>
      </trkpt>
      <trkpt lat="42.59744" lon="-0.15957">
        <ele>1179.4</ele>
        <time>2017-07-30T11:30:47Z</time>
      </trkpt>
      <trkpt lat="42.59749" lon="-0.15961">
        <ele>1180.2</ele>
        <time>2017-07-30T11:30:49Z</time>
      </trkpt>
      <trkpt lat="42.59754" lon="-0.15964">
        <ele>1180.9</ele>
        <time>2017-07-30T11:30:51Z</time>
      </trkpt>
      <trkpt lat="42.59756" lon="-0.15966">
        <ele>1176.2</ele>
        <time>2017-07-30T11:30:52Z</time>
      </trkpt>
      <trkpt lat="42.59759" lon="-0.15968">
        <ele>1177</ele>
        <time>2017-07-30T11:30:53Z</time>
      </trkpt>
      <trkpt lat="42.59762" lon="-0.15972">
        <ele>1177.9</ele>
        <time>2017-07-30T11:30:54Z</time>
      </trkpt>
      <trkpt lat="42.59764" lon="-0.15974">
        <ele>1178.7</ele>
        <time>2017-07-30T11:30:55Z</time>
      </trkpt>
      <trkpt lat="42.59766" lon="-0.15979">
        <ele>1179.4</ele>
        <time>2017-07-30T11:30:57Z</time>
      </trkpt>
      <trkpt lat="42.59764" lon="-0.15982">
        <ele>1179.6</ele>
        <time>2017-07-30T11:31:02Z</time>
      </trkpt>
      <trkpt lat="42.59766" lon="-0.15979">
        <ele>1178.4</ele>
        <time>2017-07-30T11:31:14Z</time>
      </trkpt>
      <trkpt lat="42.59764" lon="-0.15976">
        <ele>1177.8</ele>
        <time>2017-07-30T11:31:18Z</time>
      </trkpt>
      <trkpt lat="42.59762" lon="-0.15973">
        <ele>1177.3</ele>
        <time>2017-07-30T11:31:20Z</time>
      </trkpt>
      <trkpt lat="42.59762" lon="-0.15968">
        <ele>1176.6</ele>
        <time>2017-07-30T11:31:22Z</time>
      </trkpt>
      <trkpt lat="42.5976" lon="-0.15963">
        <ele>1176</ele>
        <time>2017-07-30T11:31:24Z</time>
      </trkpt>
      <trkpt lat="42.59758" lon="-0.15959">
        <ele>1175.5</ele>
        <time>2017-07-30T11:31:26Z</time>
      </trkpt>
      <trkpt lat="42.59756" lon="-0.15956">
        <ele>1175</ele>
        <time>2017-07-30T11:31:29Z</time>
      </trkpt>
      <trkpt lat="42.59756" lon="-0.15951">
        <ele>1174.3</ele>
        <time>2017-07-30T11:31:32Z</time>
      </trkpt>
      <trkpt lat="42.59756" lon="-0.15946">
        <ele>1173.8</ele>
        <time>2017-07-30T11:31:34Z</time>
      </trkpt>
      <trkpt lat="42.59755" lon="-0.15941">
        <ele>1172.9</ele>
        <time>2017-07-30T11:31:36Z</time>
      </trkpt>
      <trkpt lat="42.59755" lon="-0.15937">
        <ele>1171.7</ele>
        <time>2017-07-30T11:31:38Z</time>
      </trkpt>
      <trkpt lat="42.59753" lon="-0.15931">
        <ele>1170</ele>
        <time>2017-07-30T11:31:40Z</time>
      </trkpt>
      <trkpt lat="42.5975" lon="-0.15928">
        <ele>1169.3</ele>
        <time>2017-07-30T11:31:42Z</time>
      </trkpt>
      <trkpt lat="42.59747" lon="-0.15924">
        <ele>1168.7</ele>
        <time>2017-07-30T11:31:44Z</time>
      </trkpt>
      <trkpt lat="42.59747" lon="-0.15918">
        <ele>1167.9</ele>
        <time>2017-07-30T11:31:46Z</time>
      </trkpt>
      <trkpt lat="42.59747" lon="-0.15911">
        <ele>1167</ele>
        <time>2017-07-30T11:31:48Z</time>
      </trkpt>
      <trkpt lat="42.59746" lon="-0.15907">
        <ele>1166.3</ele>
        <time>2017-07-30T11:31:49Z</time>
      </trkpt>
      <trkpt lat="42.59747" lon="-0.15902">
        <ele>1165.5</ele>
        <time>2017-07-30T11:31:50Z</time>
      </trkpt>
      <trkpt lat="42.59747" lon="-0.15897">
        <ele>1164.7</ele>
        <time>2017-07-30T11:31:51Z</time>
      </trkpt>
      <trkpt lat="42.59747" lon="-0.15893">
        <ele>1164.3</ele>
        <time>2017-07-30T11:31:52Z</time>
      </trkpt>
      <trkpt lat="42.59748" lon="-0.15888">
        <ele>1163.8</ele>
        <time>2017-07-30T11:31:53Z</time>
      </trkpt>
      <trkpt lat="42.59748" lon="-0.15884">
        <ele>1163.4</ele>
        <time>2017-07-30T11:31:54Z</time>
      </trkpt>
      <trkpt lat="42.59749" lon="-0.15878">
        <ele>1162.9</ele>
        <time>2017-07-30T11:31:55Z</time>
      </trkpt>
      <trkpt lat="42.59749" lon="-0.15875">
        <ele>1162.2</ele>
        <time>2017-07-30T11:31:56Z</time>
      </trkpt>
      <trkpt lat="42.59749" lon="-0.15871">
        <ele>1161.4</ele>
        <time>2017-07-30T11:31:57Z</time>
      </trkpt>
      <trkpt lat="42.5975" lon="-0.15866">
        <ele>1160.3</ele>
        <time>2017-07-30T11:31:58Z</time>
      </trkpt>
      <trkpt lat="42.5975" lon="-0.15862">
        <ele>1159.8</ele>
        <time>2017-07-30T11:31:59Z</time>
      </trkpt>
      <trkpt lat="42.5975" lon="-0.15857">
        <ele>1159.3</ele>
        <time>2017-07-30T11:32:00Z</time>
      </trkpt>
      <trkpt lat="42.5975" lon="-0.15853">
        <ele>1158.3</ele>
        <time>2017-07-30T11:32:01Z</time>
      </trkpt>
      <trkpt lat="42.5975" lon="-0.15848">
        <ele>1157.2</ele>
        <time>2017-07-30T11:32:02Z</time>
      </trkpt>
      <trkpt lat="42.5975" lon="-0.15844">
        <ele>1156.9</ele>
        <time>2017-07-30T11:32:03Z</time>
      </trkpt>
      <trkpt lat="42.5975" lon="-0.1584">
        <ele>1156.5</ele>
        <time>2017-07-30T11:32:04Z</time>
      </trkpt>
      <trkpt lat="42.5975" lon="-0.15836">
        <ele>1156.2</ele>
        <time>2017-07-30T11:32:05Z</time>
      </trkpt>
      <trkpt lat="42.5975" lon="-0.15832">
        <ele>1155.9</ele>
        <time>2017-07-30T11:32:06Z</time>
      </trkpt>
      <trkpt lat="42.59751" lon="-0.15825">
        <ele>1156.6</ele>
        <time>2017-07-30T11:32:08Z</time>
      </trkpt>
      <trkpt lat="42.59753" lon="-0.15821">
        <ele>1157.5</ele>
        <time>2017-07-30T11:32:09Z</time>
      </trkpt>
      <trkpt lat="42.59755" lon="-0.15818">
        <ele>1158.1</ele>
        <time>2017-07-30T11:32:10Z</time>
      </trkpt>
      <trkpt lat="42.59757" lon="-0.15815">
        <ele>1158.6</ele>
        <time>2017-07-30T11:32:11Z</time>
      </trkpt>
      <trkpt lat="42.59759" lon="-0.15812">
        <ele>1159.7</ele>
        <time>2017-07-30T11:32:12Z</time>
      </trkpt>
      <trkpt lat="42.59761" lon="-0.1581">
        <ele>1160.9</ele>
        <time>2017-07-30T11:32:13Z</time>
      </trkpt>
      <trkpt lat="42.59765" lon="-0.15805">
        <ele>1160.7</ele>
        <time>2017-07-30T11:32:15Z</time>
      </trkpt>
      <trkpt lat="42.59767" lon="-0.15801">
        <ele>1160.7</ele>
        <time>2017-07-30T11:32:17Z</time>
      </trkpt>
      <trkpt lat="42.59769" lon="-0.15797">
        <ele>1161.4</ele>
        <time>2017-07-30T11:32:20Z</time>
      </trkpt>
      <trkpt lat="42.59768" lon="-0.15792">
        <ele>1160.1</ele>
        <time>2017-07-30T11:32:24Z</time>
      </trkpt>
      <trkpt lat="42.59766" lon="-0.1579">
        <ele>1159.1</ele>
        <time>2017-07-30T11:32:26Z</time>
      </trkpt>
      <trkpt lat="42.59763" lon="-0.15789">
        <ele>1158.2</ele>
        <time>2017-07-30T11:32:28Z</time>
      </trkpt>
      <trkpt lat="42.59759" lon="-0.1579">
        <ele>1157.7</ele>
        <time>2017-07-30T11:32:30Z</time>
      </trkpt>
      <trkpt lat="42.59755" lon="-0.15791">
        <ele>1157.1</ele>
        <time>2017-07-30T11:32:32Z</time>
      </trkpt>
      <trkpt lat="42.59751" lon="-0.15792">
        <ele>1156.1</ele>
        <time>2017-07-30T11:32:34Z</time>
      </trkpt>
      <trkpt lat="42.59748" lon="-0.15791">
        <ele>1155.2</ele>
        <time>2017-07-30T11:32:36Z</time>
      </trkpt>
      <trkpt lat="42.59745" lon="-0.15789">
        <ele>1154</ele>
        <time>2017-07-30T11:32:38Z</time>
      </trkpt>
      <trkpt lat="42.59739" lon="-0.15788">
        <ele>1152.4</ele>
        <time>2017-07-30T11:32:40Z</time>
      </trkpt>
      <trkpt lat="42.59736" lon="-0.15788">
        <ele>1151.8</ele>
        <time>2017-07-30T11:32:41Z</time>
      </trkpt>
      <trkpt lat="42.59732" lon="-0.15787">
        <ele>1151.3</ele>
        <time>2017-07-30T11:32:42Z</time>
      </trkpt>
      <trkpt lat="42.59729" lon="-0.15787">
        <ele>1150.8</ele>
        <time>2017-07-30T11:32:43Z</time>
      </trkpt>
      <trkpt lat="42.59726" lon="-0.15786">
        <ele>1150.4</ele>
        <time>2017-07-30T11:32:44Z</time>
      </trkpt>
      <trkpt lat="42.59729" lon="-0.15783">
        <ele>1149.9</ele>
        <time>2017-07-30T11:32:52Z</time>
      </trkpt>
      <trkpt lat="42.59726" lon="-0.15781">
        <ele>1149.2</ele>
        <time>2017-07-30T11:33:00Z</time>
      </trkpt>
      <trkpt lat="42.59723" lon="-0.15779">
        <ele>1148.6</ele>
        <time>2017-07-30T11:33:06Z</time>
      </trkpt>
      <trkpt lat="42.59719" lon="-0.15776">
        <ele>1147.6</ele>
        <time>2017-07-30T11:33:08Z</time>
      </trkpt>
      <trkpt lat="42.59717" lon="-0.15773">
        <ele>1147</ele>
        <time>2017-07-30T11:33:09Z</time>
      </trkpt>
      <trkpt lat="42.59714" lon="-0.15771">
        <ele>1146.6</ele>
        <time>2017-07-30T11:33:10Z</time>
      </trkpt>
      <trkpt lat="42.59712" lon="-0.15769">
        <ele>1146.4</ele>
        <time>2017-07-30T11:33:11Z</time>
      </trkpt>
      <trkpt lat="42.59708" lon="-0.15767">
        <ele>1146.2</ele>
        <time>2017-07-30T11:33:12Z</time>
      </trkpt>
      <trkpt lat="42.59705" lon="-0.15765">
        <ele>1146.2</ele>
        <time>2017-07-30T11:33:13Z</time>
      </trkpt>
      <trkpt lat="42.59701" lon="-0.15762">
        <ele>1146.7</ele>
        <time>2017-07-30T11:33:14Z</time>
      </trkpt>
      <trkpt lat="42.59698" lon="-0.15759">
        <ele>1147.8</ele>
        <time>2017-07-30T11:33:15Z</time>
      </trkpt>
      <trkpt lat="42.59695" lon="-0.15754">
        <ele>1148.6</ele>
        <time>2017-07-30T11:33:17Z</time>
      </trkpt>
      <trkpt lat="42.59694" lon="-0.15751">
        <ele>1148.8</ele>
        <time>2017-07-30T11:33:18Z</time>
      </trkpt>
      <trkpt lat="42.59692" lon="-0.15745">
        <ele>1148.3</ele>
        <time>2017-07-30T11:33:20Z</time>
      </trkpt>
      <trkpt lat="42.59689" lon="-0.15741">
        <ele>1147.3</ele>
        <time>2017-07-30T11:33:22Z</time>
      </trkpt>
      <trkpt lat="42.59686" lon="-0.15736">
        <ele>1147.1</ele>
        <time>2017-07-30T11:33:24Z</time>
      </trkpt>
      <trkpt lat="42.59683" lon="-0.15732">
        <ele>1147.3</ele>
        <time>2017-07-30T11:33:26Z</time>
      </trkpt>
      <trkpt lat="42.5968" lon="-0.15726">
        <ele>1148.6</ele>
        <time>2017-07-30T11:33:28Z</time>
      </trkpt>
      <trkpt lat="42.59677" lon="-0.15721">
        <ele>1149.8</ele>
        <time>2017-07-30T11:33:30Z</time>
      </trkpt>
      <trkpt lat="42.59673" lon="-0.15717">
        <ele>1150</ele>
        <time>2017-07-30T11:33:32Z</time>
      </trkpt>
      <trkpt lat="42.5967" lon="-0.15713">
        <ele>1149.4</ele>
        <time>2017-07-30T11:33:34Z</time>
      </trkpt>
      <trkpt lat="42.59667" lon="-0.15708">
        <ele>1148</ele>
        <time>2017-07-30T11:33:36Z</time>
      </trkpt>
      <trkpt lat="42.59662" lon="-0.15704">
        <ele>1147.8</ele>
        <time>2017-07-30T11:33:38Z</time>
      </trkpt>
      <trkpt lat="42.5966" lon="-0.15702">
        <ele>1147.8</ele>
        <time>2017-07-30T11:33:39Z</time>
      </trkpt>
      <trkpt lat="42.59657" lon="-0.157">
        <ele>1148.2</ele>
        <time>2017-07-30T11:33:40Z</time>
      </trkpt>
      <trkpt lat="42.59654" lon="-0.15698">
        <ele>1148.7</ele>
        <time>2017-07-30T11:33:41Z</time>
      </trkpt>
      <trkpt lat="42.59651" lon="-0.15695">
        <ele>1149.3</ele>
        <time>2017-07-30T11:33:42Z</time>
      </trkpt>
      <trkpt lat="42.59648" lon="-0.15692">
        <ele>1149.9</ele>
        <time>2017-07-30T11:33:43Z</time>
      </trkpt>
      <trkpt lat="42.59645" lon="-0.15689">
        <ele>1150.5</ele>
        <time>2017-07-30T11:33:44Z</time>
      </trkpt>
      <trkpt lat="42.59642" lon="-0.15686">
        <ele>1150.9</ele>
        <time>2017-07-30T11:33:45Z</time>
      </trkpt>
      <trkpt lat="42.59638" lon="-0.15682">
        <ele>1151.3</ele>
        <time>2017-07-30T11:33:46Z</time>
      </trkpt>
      <trkpt lat="42.59634" lon="-0.15678">
        <ele>1152.4</ele>
        <time>2017-07-30T11:33:47Z</time>
      </trkpt>
      <trkpt lat="42.5963" lon="-0.15673">
        <ele>1153.5</ele>
        <time>2017-07-30T11:33:48Z</time>
      </trkpt>
      <trkpt lat="42.59626" lon="-0.15669">
        <ele>1152.9</ele>
        <time>2017-07-30T11:33:49Z</time>
      </trkpt>
      <trkpt lat="42.59622" lon="-0.15664">
        <ele>1152.4</ele>
        <time>2017-07-30T11:33:50Z</time>
      </trkpt>
      <trkpt lat="42.59619" lon="-0.15659">
        <ele>1151.9</ele>
        <time>2017-07-30T11:33:51Z</time>
      </trkpt>
      <trkpt lat="42.59617" lon="-0.15654">
        <ele>1151.7</ele>
        <time>2017-07-30T11:33:52Z</time>
      </trkpt>
      <trkpt lat="42.59616" lon="-0.1565">
        <ele>1151.8</ele>
        <time>2017-07-30T11:33:53Z</time>
      </trkpt>
      <trkpt lat="42.59615" lon="-0.15646">
        <ele>1151.8</ele>
        <time>2017-07-30T11:33:54Z</time>
      </trkpt>
      <trkpt lat="42.59614" lon="-0.15642">
        <ele>1151.8</ele>
        <time>2017-07-30T11:33:55Z</time>
      </trkpt>
      <trkpt lat="42.59614" lon="-0.15638">
        <ele>1151.9</ele>
        <time>2017-07-30T11:33:56Z</time>
      </trkpt>
      <trkpt lat="42.59612" lon="-0.15631">
        <ele>1151.9</ele>
        <time>2017-07-30T11:33:58Z</time>
      </trkpt>
      <trkpt lat="42.5961" lon="-0.15628">
        <ele>1151.9</ele>
        <time>2017-07-30T11:33:59Z</time>
      </trkpt>
      <trkpt lat="42.59608" lon="-0.15625">
        <ele>1151.9</ele>
        <time>2017-07-30T11:34:00Z</time>
      </trkpt>
      <trkpt lat="42.59605" lon="-0.15622">
        <ele>1151.7</ele>
        <time>2017-07-30T11:34:01Z</time>
      </trkpt>
      <trkpt lat="42.59603" lon="-0.15619">
        <ele>1151.5</ele>
        <time>2017-07-30T11:34:02Z</time>
      </trkpt>
      <trkpt lat="42.59601" lon="-0.15615">
        <ele>1151.4</ele>
        <time>2017-07-30T11:34:03Z</time>
      </trkpt>
      <trkpt lat="42.59599" lon="-0.15612">
        <ele>1151.1</ele>
        <time>2017-07-30T11:34:04Z</time>
      </trkpt>
      <trkpt lat="42.59595" lon="-0.15607">
        <ele>1150.7</ele>
        <time>2017-07-30T11:34:06Z</time>
      </trkpt>
      <trkpt lat="42.59592" lon="-0.15602">
        <ele>1150.9</ele>
        <time>2017-07-30T11:34:08Z</time>
      </trkpt>
      <trkpt lat="42.5959" lon="-0.15599">
        <ele>1151</ele>
        <time>2017-07-30T11:34:09Z</time>
      </trkpt>
      <trkpt lat="42.59587" lon="-0.15597">
        <ele>1151.1</ele>
        <time>2017-07-30T11:34:10Z</time>
      </trkpt>
      <trkpt lat="42.59584" lon="-0.15595">
        <ele>1151</ele>
        <time>2017-07-30T11:34:11Z</time>
      </trkpt>
      <trkpt lat="42.59581" lon="-0.15591">
        <ele>1150.9</ele>
        <time>2017-07-30T11:34:12Z</time>
      </trkpt>
      <trkpt lat="42.59577" lon="-0.15588">
        <ele>1149.9</ele>
        <time>2017-07-30T11:34:13Z</time>
      </trkpt>
      <trkpt lat="42.59573" lon="-0.15584">
        <ele>1148.9</ele>
        <time>2017-07-30T11:34:14Z</time>
      </trkpt>
      <trkpt lat="42.59569" lon="-0.1558">
        <ele>1147.8</ele>
        <time>2017-07-30T11:34:15Z</time>
      </trkpt>
      <trkpt lat="42.59565" lon="-0.15577">
        <ele>1146.5</ele>
        <time>2017-07-30T11:34:16Z</time>
      </trkpt>
      <trkpt lat="42.5956" lon="-0.15573">
        <ele>1144.5</ele>
        <time>2017-07-30T11:34:17Z</time>
      </trkpt>
      <trkpt lat="42.59556" lon="-0.1557">
        <ele>1142.1</ele>
        <time>2017-07-30T11:34:18Z</time>
      </trkpt>
      <trkpt lat="42.59551" lon="-0.15566">
        <ele>1139.5</ele>
        <time>2017-07-30T11:34:19Z</time>
      </trkpt>
      <trkpt lat="42.59547" lon="-0.15563">
        <ele>1140.1</ele>
        <time>2017-07-30T11:34:20Z</time>
      </trkpt>
      <trkpt lat="42.59544" lon="-0.1556">
        <ele>1140.9</ele>
        <time>2017-07-30T11:34:21Z</time>
      </trkpt>
      <trkpt lat="42.59542" lon="-0.15557">
        <ele>1141.2</ele>
        <time>2017-07-30T11:34:22Z</time>
      </trkpt>
      <trkpt lat="42.5954" lon="-0.15553">
        <ele>1141.3</ele>
        <time>2017-07-30T11:34:24Z</time>
      </trkpt>
      <trkpt lat="42.59539" lon="-0.15549">
        <ele>1141.4</ele>
        <time>2017-07-30T11:34:32Z</time>
      </trkpt>
      <trkpt lat="42.59536" lon="-0.15545">
        <ele>1142.4</ele>
        <time>2017-07-30T11:34:36Z</time>
      </trkpt>
      <trkpt lat="42.59535" lon="-0.15541">
        <ele>1143.1</ele>
        <time>2017-07-30T11:34:38Z</time>
      </trkpt>
      <trkpt lat="42.59532" lon="-0.15539">
        <ele>1143.6</ele>
        <time>2017-07-30T11:34:43Z</time>
      </trkpt>
      <trkpt lat="42.5953" lon="-0.15536">
        <ele>1143.4</ele>
        <time>2017-07-30T11:34:50Z</time>
      </trkpt>
      <trkpt lat="42.59527" lon="-0.15533">
        <ele>1143.1</ele>
        <time>2017-07-30T11:34:53Z</time>
      </trkpt>
      <trkpt lat="42.59525" lon="-0.15528">
        <ele>1143.4</ele>
        <time>2017-07-30T11:34:55Z</time>
      </trkpt>
      <trkpt lat="42.59522" lon="-0.15523">
        <ele>1143.3</ele>
        <time>2017-07-30T11:34:57Z</time>
      </trkpt>
      <trkpt lat="42.5952" lon="-0.15518">
        <ele>1142</ele>
        <time>2017-07-30T11:34:59Z</time>
      </trkpt>
      <trkpt lat="42.59518" lon="-0.15512">
        <ele>1141.3</ele>
        <time>2017-07-30T11:35:01Z</time>
      </trkpt>
      <trkpt lat="42.59517" lon="-0.15506">
        <ele>1141.1</ele>
        <time>2017-07-30T11:35:03Z</time>
      </trkpt>
      <trkpt lat="42.59516" lon="-0.155">
        <ele>1140.6</ele>
        <time>2017-07-30T11:35:05Z</time>
      </trkpt>
      <trkpt lat="42.59515" lon="-0.15493">
        <ele>1139.8</ele>
        <time>2017-07-30T11:35:07Z</time>
      </trkpt>
      <trkpt lat="42.59515" lon="-0.15488">
        <ele>1140.2</ele>
        <time>2017-07-30T11:35:09Z</time>
      </trkpt>
      <trkpt lat="42.59514" lon="-0.15481">
        <ele>1140.6</ele>
        <time>2017-07-30T11:35:11Z</time>
      </trkpt>
      <trkpt lat="42.59515" lon="-0.15477">
        <ele>1139.6</ele>
        <time>2017-07-30T11:35:12Z</time>
      </trkpt>
      <trkpt lat="42.59515" lon="-0.15473">
        <ele>1138.6</ele>
        <time>2017-07-30T11:35:13Z</time>
      </trkpt>
      <trkpt lat="42.59515" lon="-0.15469">
        <ele>1137.7</ele>
        <time>2017-07-30T11:35:14Z</time>
      </trkpt>
      <trkpt lat="42.59515" lon="-0.15465">
        <ele>1137.5</ele>
        <time>2017-07-30T11:35:15Z</time>
      </trkpt>
      <trkpt lat="42.59516" lon="-0.15461">
        <ele>1137.2</ele>
        <time>2017-07-30T11:35:16Z</time>
      </trkpt>
      <trkpt lat="42.59517" lon="-0.15457">
        <ele>1136.4</ele>
        <time>2017-07-30T11:35:17Z</time>
      </trkpt>
      <trkpt lat="42.59518" lon="-0.15453">
        <ele>1135.1</ele>
        <time>2017-07-30T11:35:18Z</time>
      </trkpt>
      <trkpt lat="42.59519" lon="-0.15449">
        <ele>1133.7</ele>
        <time>2017-07-30T11:35:19Z</time>
      </trkpt>
      <trkpt lat="42.59519" lon="-0.15446">
        <ele>1132.8</ele>
        <time>2017-07-30T11:35:20Z</time>
      </trkpt>
      <trkpt lat="42.59521" lon="-0.15439">
        <ele>1131.4</ele>
        <time>2017-07-30T11:35:22Z</time>
      </trkpt>
      <trkpt lat="42.59522" lon="-0.15433">
        <ele>1130.6</ele>
        <time>2017-07-30T11:35:24Z</time>
      </trkpt>
      <trkpt lat="42.59524" lon="-0.15428">
        <ele>1130</ele>
        <time>2017-07-30T11:35:25Z</time>
      </trkpt>
      <trkpt lat="42.59526" lon="-0.15423">
        <ele>1128.7</ele>
        <time>2017-07-30T11:35:26Z</time>
      </trkpt>
      <trkpt lat="42.59529" lon="-0.15417">
        <ele>1127.6</ele>
        <time>2017-07-30T11:35:27Z</time>
      </trkpt>
      <trkpt lat="42.59531" lon="-0.15411">
        <ele>1126.9</ele>
        <time>2017-07-30T11:35:28Z</time>
      </trkpt>
      <trkpt lat="42.59533" lon="-0.15405">
        <ele>1127.5</ele>
        <time>2017-07-30T11:35:29Z</time>
      </trkpt>
      <trkpt lat="42.59535" lon="-0.15399">
        <ele>1128.4</ele>
        <time>2017-07-30T11:35:30Z</time>
      </trkpt>
      <trkpt lat="42.59538" lon="-0.15393">
        <ele>1128</ele>
        <time>2017-07-30T11:35:31Z</time>
      </trkpt>
      <trkpt lat="42.5954" lon="-0.15389">
        <ele>1127.6</ele>
        <time>2017-07-30T11:35:32Z</time>
      </trkpt>
      <trkpt lat="42.59542" lon="-0.15385">
        <ele>1127.3</ele>
        <time>2017-07-30T11:35:33Z</time>
      </trkpt>
      <trkpt lat="42.59544" lon="-0.15383">
        <ele>1126.9</ele>
        <time>2017-07-30T11:35:34Z</time>
      </trkpt>
      <trkpt lat="42.59547" lon="-0.1538">
        <ele>1127.3</ele>
        <time>2017-07-30T11:35:36Z</time>
      </trkpt>
      <trkpt lat="42.59549" lon="-0.15376">
        <ele>1127.7</ele>
        <time>2017-07-30T11:35:41Z</time>
      </trkpt>
      <trkpt lat="42.5955" lon="-0.15372">
        <ele>1127.4</ele>
        <time>2017-07-30T11:35:43Z</time>
      </trkpt>
      <trkpt lat="42.59551" lon="-0.15367">
        <ele>1126.7</ele>
        <time>2017-07-30T11:35:45Z</time>
      </trkpt>
      <trkpt lat="42.59553" lon="-0.15361">
        <ele>1126</ele>
        <time>2017-07-30T11:35:47Z</time>
      </trkpt>
      <trkpt lat="42.59554" lon="-0.15357">
        <ele>1126.4</ele>
        <time>2017-07-30T11:35:49Z</time>
      </trkpt>
      <trkpt lat="42.59556" lon="-0.15353">
        <ele>1126.8</ele>
        <time>2017-07-30T11:35:52Z</time>
      </trkpt>
      <trkpt lat="42.59558" lon="-0.15347">
        <ele>1125.6</ele>
        <time>2017-07-30T11:35:54Z</time>
      </trkpt>
      <trkpt lat="42.5956" lon="-0.15344">
        <ele>1124.7</ele>
        <time>2017-07-30T11:35:55Z</time>
      </trkpt>
      <trkpt lat="42.59561" lon="-0.1534">
        <ele>1124.1</ele>
        <time>2017-07-30T11:35:56Z</time>
      </trkpt>
      <trkpt lat="42.59563" lon="-0.15337">
        <ele>1124.8</ele>
        <time>2017-07-30T11:35:57Z</time>
      </trkpt>
      <trkpt lat="42.59565" lon="-0.15333">
        <ele>1125.5</ele>
        <time>2017-07-30T11:35:58Z</time>
      </trkpt>
      <trkpt lat="42.59568" lon="-0.15331">
        <ele>1126.5</ele>
        <time>2017-07-30T11:35:59Z</time>
      </trkpt>
      <trkpt lat="42.59571" lon="-0.15328">
        <ele>1127.6</ele>
        <time>2017-07-30T11:36:00Z</time>
      </trkpt>
      <trkpt lat="42.59575" lon="-0.15325">
        <ele>1128.4</ele>
        <time>2017-07-30T11:36:01Z</time>
      </trkpt>
      <trkpt lat="42.59578" lon="-0.15322">
        <ele>1128.7</ele>
        <time>2017-07-30T11:36:02Z</time>
      </trkpt>
      <trkpt lat="42.59581" lon="-0.1532">
        <ele>1129.3</ele>
        <time>2017-07-30T11:36:03Z</time>
      </trkpt>
      <trkpt lat="42.59584" lon="-0.15318">
        <ele>1130.6</ele>
        <time>2017-07-30T11:36:04Z</time>
      </trkpt>
      <trkpt lat="42.59587" lon="-0.15316">
        <ele>1131.8</ele>
        <time>2017-07-30T11:36:05Z</time>
      </trkpt>
      <trkpt lat="42.5959" lon="-0.15315">
        <ele>1131.9</ele>
        <time>2017-07-30T11:36:06Z</time>
      </trkpt>
      <trkpt lat="42.59594" lon="-0.15314">
        <ele>1131.6</ele>
        <time>2017-07-30T11:36:08Z</time>
      </trkpt>
      <trkpt lat="42.59599" lon="-0.15313">
        <ele>1131.9</ele>
        <time>2017-07-30T11:36:10Z</time>
      </trkpt>
      <trkpt lat="42.59603" lon="-0.15311">
        <ele>1132.5</ele>
        <time>2017-07-30T11:36:12Z</time>
      </trkpt>
      <trkpt lat="42.59605" lon="-0.15308">
        <ele>1132.9</ele>
        <time>2017-07-30T11:36:13Z</time>
      </trkpt>
      <trkpt lat="42.59607" lon="-0.15305">
        <ele>1133.4</ele>
        <time>2017-07-30T11:36:14Z</time>
      </trkpt>
      <trkpt lat="42.5961" lon="-0.15303">
        <ele>1134</ele>
        <time>2017-07-30T11:36:15Z</time>
      </trkpt>
      <trkpt lat="42.59612" lon="-0.15301">
        <ele>1134.5</ele>
        <time>2017-07-30T11:36:16Z</time>
      </trkpt>
      <trkpt lat="42.59615" lon="-0.15299">
        <ele>1135.1</ele>
        <time>2017-07-30T11:36:17Z</time>
      </trkpt>
      <trkpt lat="42.59618" lon="-0.15297">
        <ele>1135.7</ele>
        <time>2017-07-30T11:36:18Z</time>
      </trkpt>
      <trkpt lat="42.59621" lon="-0.15295">
        <ele>1136.1</ele>
        <time>2017-07-30T11:36:19Z</time>
      </trkpt>
      <trkpt lat="42.59624" lon="-0.15294">
        <ele>1136.5</ele>
        <time>2017-07-30T11:36:20Z</time>
      </trkpt>
      <trkpt lat="42.59627" lon="-0.15292">
        <ele>1137.1</ele>
        <time>2017-07-30T11:36:21Z</time>
      </trkpt>
      <trkpt lat="42.59631" lon="-0.1529">
        <ele>1137.7</ele>
        <time>2017-07-30T11:36:22Z</time>
      </trkpt>
      <trkpt lat="42.59634" lon="-0.15289">
        <ele>1138.8</ele>
        <time>2017-07-30T11:36:23Z</time>
      </trkpt>
      <trkpt lat="42.59637" lon="-0.15287">
        <ele>1139.8</ele>
        <time>2017-07-30T11:36:24Z</time>
      </trkpt>
      <trkpt lat="42.5964" lon="-0.15285">
        <ele>1140.3</ele>
        <time>2017-07-30T11:36:25Z</time>
      </trkpt>
      <trkpt lat="42.59645" lon="-0.15281">
        <ele>1140.9</ele>
        <time>2017-07-30T11:36:27Z</time>
      </trkpt>
      <trkpt lat="42.59648" lon="-0.15278">
        <ele>1141.8</ele>
        <time>2017-07-30T11:36:28Z</time>
      </trkpt>
      <trkpt lat="42.59651" lon="-0.15277">
        <ele>1142.5</ele>
        <time>2017-07-30T11:36:29Z</time>
      </trkpt>
      <trkpt lat="42.59654" lon="-0.15275">
        <ele>1143.5</ele>
        <time>2017-07-30T11:36:30Z</time>
      </trkpt>
      <trkpt lat="42.59656" lon="-0.15274">
        <ele>1144.4</ele>
        <time>2017-07-30T11:36:31Z</time>
      </trkpt>
      <trkpt lat="42.59662" lon="-0.15273">
        <ele>1143</ele>
        <time>2017-07-30T11:36:33Z</time>
      </trkpt>
      <trkpt lat="42.59666" lon="-0.1527">
        <ele>1141</ele>
        <time>2017-07-30T11:36:35Z</time>
      </trkpt>
      <trkpt lat="42.59668" lon="-0.15266">
        <ele>1139.9</ele>
        <time>2017-07-30T11:36:37Z</time>
      </trkpt>
      <trkpt lat="42.59666" lon="-0.1526">
        <ele>1138.8</ele>
        <time>2017-07-30T11:36:39Z</time>
      </trkpt>
      <trkpt lat="42.59664" lon="-0.15257">
        <ele>1138.1</ele>
        <time>2017-07-30T11:36:40Z</time>
      </trkpt>
      <trkpt lat="42.59661" lon="-0.15254">
        <ele>1136.7</ele>
        <time>2017-07-30T11:36:41Z</time>
      </trkpt>
      <trkpt lat="42.59657" lon="-0.1525">
        <ele>1135</ele>
        <time>2017-07-30T11:36:42Z</time>
      </trkpt>
      <trkpt lat="42.59654" lon="-0.15247">
        <ele>1134.1</ele>
        <time>2017-07-30T11:36:43Z</time>
      </trkpt>
      <trkpt lat="42.5965" lon="-0.15242">
        <ele>1132.2</ele>
        <time>2017-07-30T11:36:45Z</time>
      </trkpt>
      <trkpt lat="42.59648" lon="-0.15236">
        <ele>1130.2</ele>
        <time>2017-07-30T11:36:47Z</time>
      </trkpt>
      <trkpt lat="42.59647" lon="-0.15231">
        <ele>1129.4</ele>
        <time>2017-07-30T11:36:49Z</time>
      </trkpt>
      <trkpt lat="42.59645" lon="-0.15224">
        <ele>1128.3</ele>
        <time>2017-07-30T11:36:51Z</time>
      </trkpt>
      <trkpt lat="42.59643" lon="-0.1522">
        <ele>1127.6</ele>
        <time>2017-07-30T11:36:52Z</time>
      </trkpt>
      <trkpt lat="42.59641" lon="-0.15217">
        <ele>1126.9</ele>
        <time>2017-07-30T11:36:53Z</time>
      </trkpt>
      <trkpt lat="42.59639" lon="-0.15214">
        <ele>1125.9</ele>
        <time>2017-07-30T11:36:54Z</time>
      </trkpt>
      <trkpt lat="42.59638" lon="-0.1521">
        <ele>1124.7</ele>
        <time>2017-07-30T11:36:55Z</time>
      </trkpt>
      <trkpt lat="42.59636" lon="-0.15206">
        <ele>1123.6</ele>
        <time>2017-07-30T11:36:56Z</time>
      </trkpt>
      <trkpt lat="42.59635" lon="-0.15201">
        <ele>1123.2</ele>
        <time>2017-07-30T11:36:57Z</time>
      </trkpt>
      <trkpt lat="42.59633" lon="-0.15196">
        <ele>1122.8</ele>
        <time>2017-07-30T11:36:58Z</time>
      </trkpt>
      <trkpt lat="42.59633" lon="-0.15191">
        <ele>1123</ele>
        <time>2017-07-30T11:36:59Z</time>
      </trkpt>
      <trkpt lat="42.59632" lon="-0.15185">
        <ele>1123.2</ele>
        <time>2017-07-30T11:37:00Z</time>
      </trkpt>
      <trkpt lat="42.59633" lon="-0.1518">
        <ele>1123.8</ele>
        <time>2017-07-30T11:37:01Z</time>
      </trkpt>
      <trkpt lat="42.59634" lon="-0.15174">
        <ele>1124.6</ele>
        <time>2017-07-30T11:37:02Z</time>
      </trkpt>
      <trkpt lat="42.59635" lon="-0.1517">
        <ele>1124.8</ele>
        <time>2017-07-30T11:37:03Z</time>
      </trkpt>
      <trkpt lat="42.59636" lon="-0.15166">
        <ele>1124.3</ele>
        <time>2017-07-30T11:37:04Z</time>
      </trkpt>
      <trkpt lat="42.59638" lon="-0.15161">
        <ele>1123.7</ele>
        <time>2017-07-30T11:37:05Z</time>
      </trkpt>
      <trkpt lat="42.59639" lon="-0.15156">
        <ele>1123</ele>
        <time>2017-07-30T11:37:06Z</time>
      </trkpt>
      <trkpt lat="42.5964" lon="-0.15151">
        <ele>1122.3</ele>
        <time>2017-07-30T11:37:07Z</time>
      </trkpt>
      <trkpt lat="42.59642" lon="-0.15146">
        <ele>1121.9</ele>
        <time>2017-07-30T11:37:08Z</time>
      </trkpt>
      <trkpt lat="42.59643" lon="-0.1514">
        <ele>1122.4</ele>
        <time>2017-07-30T11:37:09Z</time>
      </trkpt>
      <trkpt lat="42.59646" lon="-0.15134">
        <ele>1123.5</ele>
        <time>2017-07-30T11:37:10Z</time>
      </trkpt>
      <trkpt lat="42.59648" lon="-0.15129">
        <ele>1125.1</ele>
        <time>2017-07-30T11:37:11Z</time>
      </trkpt>
      <trkpt lat="42.5965" lon="-0.15125">
        <ele>1125.9</ele>
        <time>2017-07-30T11:37:12Z</time>
      </trkpt>
      <trkpt lat="42.59653" lon="-0.1512">
        <ele>1126.5</ele>
        <time>2017-07-30T11:37:14Z</time>
      </trkpt>
      <trkpt lat="42.59655" lon="-0.15117">
        <ele>1126.2</ele>
        <time>2017-07-30T11:37:16Z</time>
      </trkpt>
      <trkpt lat="42.59657" lon="-0.15114">
        <ele>1125.4</ele>
        <time>2017-07-30T11:37:21Z</time>
      </trkpt>
      <trkpt lat="42.59658" lon="-0.15109">
        <ele>1124.6</ele>
        <time>2017-07-30T11:37:24Z</time>
      </trkpt>
      <trkpt lat="42.5966" lon="-0.15105">
        <ele>1124.8</ele>
        <time>2017-07-30T11:37:26Z</time>
      </trkpt>
      <trkpt lat="42.59662" lon="-0.15101">
        <ele>1125.1</ele>
        <time>2017-07-30T11:37:28Z</time>
      </trkpt>
      <trkpt lat="42.59664" lon="-0.15095">
        <ele>1124.1</ele>
        <time>2017-07-30T11:37:30Z</time>
      </trkpt>
      <trkpt lat="42.59666" lon="-0.1509">
        <ele>1123.2</ele>
        <time>2017-07-30T11:37:32Z</time>
      </trkpt>
      <trkpt lat="42.59669" lon="-0.15086">
        <ele>1122.6</ele>
        <time>2017-07-30T11:37:34Z</time>
      </trkpt>
      <trkpt lat="42.59671" lon="-0.15083">
        <ele>1122.2</ele>
        <time>2017-07-30T11:37:36Z</time>
      </trkpt>
      <trkpt lat="42.59673" lon="-0.1508">
        <ele>1121.4</ele>
        <time>2017-07-30T11:37:44Z</time>
      </trkpt>
      <trkpt lat="42.59674" lon="-0.15076">
        <ele>1120.4</ele>
        <time>2017-07-30T11:37:51Z</time>
      </trkpt>
      <trkpt lat="42.59677" lon="-0.15073">
        <ele>1119.2</ele>
        <time>2017-07-30T11:37:56Z</time>
      </trkpt>
      <trkpt lat="42.5968" lon="-0.1507">
        <ele>1118.7</ele>
        <time>2017-07-30T11:38:01Z</time>
      </trkpt>
      <trkpt lat="42.59683" lon="-0.15066">
        <ele>1118</ele>
        <time>2017-07-30T11:38:03Z</time>
      </trkpt>
      <trkpt lat="42.59686" lon="-0.15061">
        <ele>1117.3</ele>
        <time>2017-07-30T11:38:05Z</time>
      </trkpt>
      <trkpt lat="42.5969" lon="-0.15058">
        <ele>1116.6</ele>
        <time>2017-07-30T11:38:07Z</time>
      </trkpt>
      <trkpt lat="42.59692" lon="-0.15054">
        <ele>1115.3</ele>
        <time>2017-07-30T11:38:11Z</time>
      </trkpt>
      <trkpt lat="42.59695" lon="-0.15051">
        <ele>1114.1</ele>
        <time>2017-07-30T11:38:13Z</time>
      </trkpt>
      <trkpt lat="42.59698" lon="-0.15049">
        <ele>1113.4</ele>
        <time>2017-07-30T11:38:15Z</time>
      </trkpt>
      <trkpt lat="42.597" lon="-0.15046">
        <ele>1112.9</ele>
        <time>2017-07-30T11:38:17Z</time>
      </trkpt>
      <trkpt lat="42.59703" lon="-0.1504">
        <ele>1113.1</ele>
        <time>2017-07-30T11:38:19Z</time>
      </trkpt>
      <trkpt lat="42.59706" lon="-0.15035">
        <ele>1114.1</ele>
        <time>2017-07-30T11:38:21Z</time>
      </trkpt>
      <trkpt lat="42.59709" lon="-0.15032">
        <ele>1114.6</ele>
        <time>2017-07-30T11:38:23Z</time>
      </trkpt>
      <trkpt lat="42.59712" lon="-0.15029">
        <ele>1115.1</ele>
        <time>2017-07-30T11:38:25Z</time>
      </trkpt>
      <trkpt lat="42.59715" lon="-0.15025">
        <ele>1116.1</ele>
        <time>2017-07-30T11:38:27Z</time>
      </trkpt>
      <trkpt lat="42.59719" lon="-0.15022">
        <ele>1117.1</ele>
        <time>2017-07-30T11:38:29Z</time>
      </trkpt>
      <trkpt lat="42.59721" lon="-0.1502">
        <ele>1117</ele>
        <time>2017-07-30T11:38:30Z</time>
      </trkpt>
      <trkpt lat="42.59723" lon="-0.15017">
        <ele>1116.9</ele>
        <time>2017-07-30T11:38:31Z</time>
      </trkpt>
      <trkpt lat="42.59726" lon="-0.15015">
        <ele>1117.8</ele>
        <time>2017-07-30T11:38:32Z</time>
      </trkpt>
      <trkpt lat="42.59728" lon="-0.15013">
        <ele>1119.2</ele>
        <time>2017-07-30T11:38:33Z</time>
      </trkpt>
      <trkpt lat="42.59733" lon="-0.1501">
        <ele>1121.6</ele>
        <time>2017-07-30T11:38:35Z</time>
      </trkpt>
      <trkpt lat="42.59736" lon="-0.15005">
        <ele>1123.4</ele>
        <time>2017-07-30T11:38:37Z</time>
      </trkpt>
      <trkpt lat="42.59735" lon="-0.15001">
        <ele>1123.5</ele>
        <time>2017-07-30T11:38:42Z</time>
      </trkpt>
      <trkpt lat="42.59733" lon="-0.14998">
        <ele>1122.3</ele>
        <time>2017-07-30T11:38:44Z</time>
      </trkpt>
      <trkpt lat="42.5973" lon="-0.14998">
        <ele>1121.1</ele>
        <time>2017-07-30T11:39:16Z</time>
      </trkpt>
      <trkpt lat="42.59726" lon="-0.14996">
        <ele>1119.6</ele>
        <time>2017-07-30T11:39:18Z</time>
      </trkpt>
      <trkpt lat="42.59723" lon="-0.14995">
        <ele>1118.5</ele>
        <time>2017-07-30T11:39:20Z</time>
      </trkpt>
      <trkpt lat="42.5972" lon="-0.14992">
        <ele>1117.3</ele>
        <time>2017-07-30T11:39:22Z</time>
      </trkpt>
      <trkpt lat="42.59714" lon="-0.1499">
        <ele>1114.8</ele>
        <time>2017-07-30T11:39:24Z</time>
      </trkpt>
      <trkpt lat="42.59711" lon="-0.14988">
        <ele>1113.1</ele>
        <time>2017-07-30T11:39:25Z</time>
      </trkpt>
      <trkpt lat="42.59707" lon="-0.14985">
        <ele>1112</ele>
        <time>2017-07-30T11:39:26Z</time>
      </trkpt>
      <trkpt lat="42.59704" lon="-0.14982">
        <ele>1111</ele>
        <time>2017-07-30T11:39:27Z</time>
      </trkpt>
      <trkpt lat="42.59701" lon="-0.14979">
        <ele>1110.2</ele>
        <time>2017-07-30T11:39:28Z</time>
      </trkpt>
      <trkpt lat="42.59698" lon="-0.14976">
        <ele>1109.4</ele>
        <time>2017-07-30T11:39:29Z</time>
      </trkpt>
      <trkpt lat="42.59695" lon="-0.14973">
        <ele>1108.8</ele>
        <time>2017-07-30T11:39:30Z</time>
      </trkpt>
      <trkpt lat="42.59692" lon="-0.14971">
        <ele>1108.3</ele>
        <time>2017-07-30T11:39:31Z</time>
      </trkpt>
      <trkpt lat="42.59688" lon="-0.14968">
        <ele>1107.7</ele>
        <time>2017-07-30T11:39:32Z</time>
      </trkpt>
      <trkpt lat="42.59685" lon="-0.14966">
        <ele>1107.2</ele>
        <time>2017-07-30T11:39:33Z</time>
      </trkpt>
      <trkpt lat="42.59683" lon="-0.14964">
        <ele>1106.8</ele>
        <time>2017-07-30T11:39:34Z</time>
      </trkpt>
      <trkpt lat="42.5968" lon="-0.14962">
        <ele>1106.5</ele>
        <time>2017-07-30T11:39:35Z</time>
      </trkpt>
      <trkpt lat="42.59677" lon="-0.14959">
        <ele>1106</ele>
        <time>2017-07-30T11:39:36Z</time>
      </trkpt>
      <trkpt lat="42.59674" lon="-0.14956">
        <ele>1105.3</ele>
        <time>2017-07-30T11:39:37Z</time>
      </trkpt>
      <trkpt lat="42.59672" lon="-0.14954">
        <ele>1104.4</ele>
        <time>2017-07-30T11:39:38Z</time>
      </trkpt>
      <trkpt lat="42.59669" lon="-0.1495">
        <ele>1103.6</ele>
        <time>2017-07-30T11:39:39Z</time>
      </trkpt>
      <trkpt lat="42.59667" lon="-0.14947">
        <ele>1102.8</ele>
        <time>2017-07-30T11:39:40Z</time>
      </trkpt>
      <trkpt lat="42.59664" lon="-0.14943">
        <ele>1101.9</ele>
        <time>2017-07-30T11:39:41Z</time>
      </trkpt>
      <trkpt lat="42.59661" lon="-0.14938">
        <ele>1100.8</ele>
        <time>2017-07-30T11:39:42Z</time>
      </trkpt>
      <trkpt lat="42.59659" lon="-0.14934">
        <ele>1099.7</ele>
        <time>2017-07-30T11:39:43Z</time>
      </trkpt>
      <trkpt lat="42.59658" lon="-0.1493">
        <ele>1099</ele>
        <time>2017-07-30T11:39:44Z</time>
      </trkpt>
      <trkpt lat="42.59657" lon="-0.14926">
        <ele>1098.4</ele>
        <time>2017-07-30T11:39:45Z</time>
      </trkpt>
      <trkpt lat="42.59656" lon="-0.14922">
        <ele>1097.7</ele>
        <time>2017-07-30T11:39:46Z</time>
      </trkpt>
      <trkpt lat="42.59655" lon="-0.14918">
        <ele>1096.8</ele>
        <time>2017-07-30T11:39:47Z</time>
      </trkpt>
      <trkpt lat="42.59654" lon="-0.14914">
        <ele>1095.8</ele>
        <time>2017-07-30T11:39:48Z</time>
      </trkpt>
      <trkpt lat="42.59654" lon="-0.1491">
        <ele>1095.6</ele>
        <time>2017-07-30T11:39:49Z</time>
      </trkpt>
      <trkpt lat="42.59653" lon="-0.14904">
        <ele>1095.5</ele>
        <time>2017-07-30T11:39:51Z</time>
      </trkpt>
      <trkpt lat="42.59652" lon="-0.14897">
        <ele>1094.9</ele>
        <time>2017-07-30T11:39:53Z</time>
      </trkpt>
      <trkpt lat="42.59651" lon="-0.14892">
        <ele>1094.4</ele>
        <time>2017-07-30T11:39:55Z</time>
      </trkpt>
      <trkpt lat="42.59651" lon="-0.14887">
        <ele>1095.6</ele>
        <time>2017-07-30T11:39:57Z</time>
      </trkpt>
      <trkpt lat="42.59651" lon="-0.14882">
        <ele>1096.7</ele>
        <time>2017-07-30T11:39:58Z</time>
      </trkpt>
      <trkpt lat="42.59651" lon="-0.14876">
        <ele>1096.4</ele>
        <time>2017-07-30T11:39:59Z</time>
      </trkpt>
      <trkpt lat="42.59652" lon="-0.1487">
        <ele>1095.7</ele>
        <time>2017-07-30T11:40:00Z</time>
      </trkpt>
      <trkpt lat="42.59653" lon="-0.14863">
        <ele>1094.3</ele>
        <time>2017-07-30T11:40:01Z</time>
      </trkpt>
      <trkpt lat="42.59653" lon="-0.14857">
        <ele>1093.2</ele>
        <time>2017-07-30T11:40:02Z</time>
      </trkpt>
      <trkpt lat="42.59653" lon="-0.14851">
        <ele>1092.3</ele>
        <time>2017-07-30T11:40:03Z</time>
      </trkpt>
      <trkpt lat="42.59654" lon="-0.14846">
        <ele>1091.6</ele>
        <time>2017-07-30T11:40:04Z</time>
      </trkpt>
      <trkpt lat="42.59655" lon="-0.14842">
        <ele>1091.1</ele>
        <time>2017-07-30T11:40:05Z</time>
      </trkpt>
      <trkpt lat="42.59657" lon="-0.14837">
        <ele>1090.3</ele>
        <time>2017-07-30T11:40:07Z</time>
      </trkpt>
      <trkpt lat="42.59657" lon="-0.14831">
        <ele>1091.9</ele>
        <time>2017-07-30T11:40:09Z</time>
      </trkpt>
      <trkpt lat="42.59656" lon="-0.14827">
        <ele>1091.6</ele>
        <time>2017-07-30T11:40:10Z</time>
      </trkpt>
      <trkpt lat="42.59654" lon="-0.14824">
        <ele>1090</ele>
        <time>2017-07-30T11:40:11Z</time>
      </trkpt>
      <trkpt lat="42.59653" lon="-0.1482">
        <ele>1088.8</ele>
        <time>2017-07-30T11:40:12Z</time>
      </trkpt>
      <trkpt lat="42.59653" lon="-0.14816">
        <ele>1088.4</ele>
        <time>2017-07-30T11:40:13Z</time>
      </trkpt>
      <trkpt lat="42.59652" lon="-0.14811">
        <ele>1087.8</ele>
        <time>2017-07-30T11:40:14Z</time>
      </trkpt>
      <trkpt lat="42.59652" lon="-0.14807">
        <ele>1086.1</ele>
        <time>2017-07-30T11:40:15Z</time>
      </trkpt>
      <trkpt lat="42.59652" lon="-0.14801">
        <ele>1085.1</ele>
        <time>2017-07-30T11:40:16Z</time>
      </trkpt>
      <trkpt lat="42.59653" lon="-0.14796">
        <ele>1085.6</ele>
        <time>2017-07-30T11:40:17Z</time>
      </trkpt>
      <trkpt lat="42.59653" lon="-0.1479">
        <ele>1085.6</ele>
        <time>2017-07-30T11:40:18Z</time>
      </trkpt>
      <trkpt lat="42.59654" lon="-0.14785">
        <ele>1084.8</ele>
        <time>2017-07-30T11:40:19Z</time>
      </trkpt>
      <trkpt lat="42.59655" lon="-0.1478">
        <ele>1084</ele>
        <time>2017-07-30T11:40:20Z</time>
      </trkpt>
      <trkpt lat="42.59655" lon="-0.14776">
        <ele>1083.7</ele>
        <time>2017-07-30T11:40:21Z</time>
      </trkpt>
      <trkpt lat="42.59656" lon="-0.14772">
        <ele>1083.4</ele>
        <time>2017-07-30T11:40:22Z</time>
      </trkpt>
      <trkpt lat="42.59658" lon="-0.14765">
        <ele>1084.1</ele>
        <time>2017-07-30T11:40:24Z</time>
      </trkpt>
      <trkpt lat="42.59659" lon="-0.14762">
        <ele>1085.1</ele>
        <time>2017-07-30T11:40:26Z</time>
      </trkpt>
      <trkpt lat="42.59661" lon="-0.14759">
        <ele>1085.9</ele>
        <time>2017-07-30T11:40:33Z</time>
      </trkpt>
      <trkpt lat="42.59663" lon="-0.14755">
        <ele>1086.7</ele>
        <time>2017-07-30T11:40:40Z</time>
      </trkpt>
      <trkpt lat="42.59664" lon="-0.14752">
        <ele>1086.5</ele>
        <time>2017-07-30T11:40:43Z</time>
      </trkpt>
      <trkpt lat="42.59665" lon="-0.14747">
        <ele>1086.1</ele>
        <time>2017-07-30T11:40:46Z</time>
      </trkpt>
      <trkpt lat="42.59665" lon="-0.14741">
        <ele>1085.5</ele>
        <time>2017-07-30T11:40:48Z</time>
      </trkpt>
      <trkpt lat="42.59665" lon="-0.14736">
        <ele>1084.6</ele>
        <time>2017-07-30T11:40:50Z</time>
      </trkpt>
      <trkpt lat="42.59665" lon="-0.14731">
        <ele>1083.6</ele>
        <time>2017-07-30T11:40:52Z</time>
      </trkpt>
      <trkpt lat="42.59665" lon="-0.14727">
        <ele>1083.2</ele>
        <time>2017-07-30T11:40:59Z</time>
      </trkpt>
      <trkpt lat="42.59665" lon="-0.14723">
        <ele>1082.8</ele>
        <time>2017-07-30T11:41:04Z</time>
      </trkpt>
      <trkpt lat="42.59666" lon="-0.14718">
        <ele>1081.9</ele>
        <time>2017-07-30T11:41:07Z</time>
      </trkpt>
      <trkpt lat="42.59666" lon="-0.14713">
        <ele>1080.7</ele>
        <time>2017-07-30T11:41:09Z</time>
      </trkpt>
      <trkpt lat="42.59667" lon="-0.14709">
        <ele>1079.7</ele>
        <time>2017-07-30T11:41:11Z</time>
      </trkpt>
      <trkpt lat="42.59668" lon="-0.14705">
        <ele>1079.4</ele>
        <time>2017-07-30T11:41:13Z</time>
      </trkpt>
      <trkpt lat="42.59669" lon="-0.14701">
        <ele>1079.5</ele>
        <time>2017-07-30T11:41:15Z</time>
      </trkpt>
      <trkpt lat="42.59671" lon="-0.14697">
        <ele>1079.7</ele>
        <time>2017-07-30T11:41:17Z</time>
      </trkpt>
      <trkpt lat="42.59673" lon="-0.14691">
        <ele>1080.5</ele>
        <time>2017-07-30T11:41:19Z</time>
      </trkpt>
      <trkpt lat="42.59675" lon="-0.14685">
        <ele>1081.5</ele>
        <time>2017-07-30T11:41:21Z</time>
      </trkpt>
      <trkpt lat="42.59677" lon="-0.14679">
        <ele>1082.8</ele>
        <time>2017-07-30T11:41:23Z</time>
      </trkpt>
      <trkpt lat="42.59678" lon="-0.14672">
        <ele>1084.4</ele>
        <time>2017-07-30T11:41:25Z</time>
      </trkpt>
      <trkpt lat="42.59678" lon="-0.14668">
        <ele>1085.2</ele>
        <time>2017-07-30T11:41:26Z</time>
      </trkpt>
      <trkpt lat="42.5968" lon="-0.14662">
        <ele>1086.5</ele>
        <time>2017-07-30T11:41:28Z</time>
      </trkpt>
      <trkpt lat="42.5968" lon="-0.14655">
        <ele>1086.2</ele>
        <time>2017-07-30T11:41:30Z</time>
      </trkpt>
      <trkpt lat="42.59679" lon="-0.1465">
        <ele>1086.3</ele>
        <time>2017-07-30T11:41:32Z</time>
      </trkpt>
      <trkpt lat="42.59677" lon="-0.14647">
        <ele>1086.6</ele>
        <time>2017-07-30T11:41:33Z</time>
      </trkpt>
      <trkpt lat="42.59676" lon="-0.14644">
        <ele>1085.8</ele>
        <time>2017-07-30T11:41:34Z</time>
      </trkpt>
      <trkpt lat="42.59674" lon="-0.1464">
        <ele>1083.8</ele>
        <time>2017-07-30T11:41:35Z</time>
      </trkpt>
      <trkpt lat="42.59673" lon="-0.14637">
        <ele>1081.9</ele>
        <time>2017-07-30T11:41:36Z</time>
      </trkpt>
      <trkpt lat="42.5967" lon="-0.14631">
        <ele>1079.5</ele>
        <time>2017-07-30T11:41:38Z</time>
      </trkpt>
      <trkpt lat="42.59668" lon="-0.14625">
        <ele>1077.5</ele>
        <time>2017-07-30T11:41:40Z</time>
      </trkpt>
      <trkpt lat="42.59665" lon="-0.14621">
        <ele>1075.6</ele>
        <time>2017-07-30T11:41:42Z</time>
      </trkpt>
      <trkpt lat="42.59661" lon="-0.14616">
        <ele>1073.7</ele>
        <time>2017-07-30T11:41:44Z</time>
      </trkpt>
      <trkpt lat="42.59659" lon="-0.14611">
        <ele>1072.2</ele>
        <time>2017-07-30T11:41:46Z</time>
      </trkpt>
      <trkpt lat="42.59657" lon="-0.14607">
        <ele>1071</ele>
        <time>2017-07-30T11:41:48Z</time>
      </trkpt>
      <trkpt lat="42.59656" lon="-0.14603">
        <ele>1070.1</ele>
        <time>2017-07-30T11:41:50Z</time>
      </trkpt>
      <trkpt lat="42.59656" lon="-0.14597">
        <ele>1068.5</ele>
        <time>2017-07-30T11:41:53Z</time>
      </trkpt>
      <trkpt lat="42.59655" lon="-0.14591">
        <ele>1066.9</ele>
        <time>2017-07-30T11:41:55Z</time>
      </trkpt>
      <trkpt lat="42.59655" lon="-0.14586">
        <ele>1065.1</ele>
        <time>2017-07-30T11:41:58Z</time>
      </trkpt>
      <trkpt lat="42.59656" lon="-0.14581">
        <ele>1063.4</ele>
        <time>2017-07-30T11:42:00Z</time>
      </trkpt>
      <trkpt lat="42.59657" lon="-0.14577">
        <ele>1061.9</ele>
        <time>2017-07-30T11:42:02Z</time>
      </trkpt>
      <trkpt lat="42.59657" lon="-0.14573">
        <ele>1061.5</ele>
        <time>2017-07-30T11:42:05Z</time>
      </trkpt>
      <trkpt lat="42.59657" lon="-0.14569">
        <ele>1060.9</ele>
        <time>2017-07-30T11:42:11Z</time>
      </trkpt>
      <trkpt lat="42.59657" lon="-0.14565">
        <ele>1060.4</ele>
        <time>2017-07-30T11:42:13Z</time>
      </trkpt>
      <trkpt lat="42.59655" lon="-0.14561">
        <ele>1059.9</ele>
        <time>2017-07-30T11:42:15Z</time>
      </trkpt>
      <trkpt lat="42.59654" lon="-0.14556">
        <ele>1058.7</ele>
        <time>2017-07-30T11:42:18Z</time>
      </trkpt>
      <trkpt lat="42.59654" lon="-0.14552">
        <ele>1057.5</ele>
        <time>2017-07-30T11:42:20Z</time>
      </trkpt>
      <trkpt lat="42.59655" lon="-0.14547">
        <ele>1056.4</ele>
        <time>2017-07-30T11:42:23Z</time>
      </trkpt>
      <trkpt lat="42.59656" lon="-0.14542">
        <ele>1055.8</ele>
        <time>2017-07-30T11:42:26Z</time>
      </trkpt>
      <trkpt lat="42.59658" lon="-0.14539">
        <ele>1055.4</ele>
        <time>2017-07-30T11:42:31Z</time>
      </trkpt>
      <trkpt lat="42.59658" lon="-0.14534">
        <ele>1055.4</ele>
        <time>2017-07-30T11:42:34Z</time>
      </trkpt>
      <trkpt lat="42.59659" lon="-0.1453">
        <ele>1055.5</ele>
        <time>2017-07-30T11:42:36Z</time>
      </trkpt>
      <trkpt lat="42.59658" lon="-0.14526">
        <ele>1055.6</ele>
        <time>2017-07-30T11:42:49Z</time>
      </trkpt>
      <trkpt lat="42.59659" lon="-0.14522">
        <ele>1055.4</ele>
        <time>2017-07-30T11:42:56Z</time>
      </trkpt>
      <trkpt lat="42.5966" lon="-0.14519">
        <ele>1055.1</ele>
        <time>2017-07-30T11:43:04Z</time>
      </trkpt>
      <trkpt lat="42.5966" lon="-0.14515">
        <ele>1054.8</ele>
        <time>2017-07-30T11:43:12Z</time>
      </trkpt>
      <trkpt lat="42.59661" lon="-0.1451">
        <ele>1054.7</ele>
        <time>2017-07-30T11:43:20Z</time>
      </trkpt>
      <trkpt lat="42.59662" lon="-0.14506">
        <ele>1054.7</ele>
        <time>2017-07-30T11:43:24Z</time>
      </trkpt>
      <trkpt lat="42.59662" lon="-0.14502">
        <ele>1054.5</ele>
        <time>2017-07-30T11:43:28Z</time>
      </trkpt>
      <trkpt lat="42.59662" lon="-0.14498">
        <ele>1053.6</ele>
        <time>2017-07-30T11:43:32Z</time>
      </trkpt>
      <trkpt lat="42.59663" lon="-0.14493">
        <ele>1052.7</ele>
        <time>2017-07-30T11:43:38Z</time>
      </trkpt>
      <trkpt lat="42.59663" lon="-0.14489">
        <ele>1051.9</ele>
        <time>2017-07-30T11:43:45Z</time>
      </trkpt>
      <trkpt lat="42.59663" lon="-0.14485">
        <ele>1051.2</ele>
        <time>2017-07-30T11:43:49Z</time>
      </trkpt>
      <trkpt lat="42.59663" lon="-0.14482">
        <ele>1050.5</ele>
        <time>2017-07-30T11:43:54Z</time>
      </trkpt>
      <trkpt lat="42.59663" lon="-0.14477">
        <ele>1049.7</ele>
        <time>2017-07-30T11:43:59Z</time>
      </trkpt>
      <trkpt lat="42.59663" lon="-0.14472">
        <ele>1048.6</ele>
        <time>2017-07-30T11:44:04Z</time>
      </trkpt>
      <trkpt lat="42.59662" lon="-0.14469">
        <ele>1047.8</ele>
        <time>2017-07-30T11:44:06Z</time>
      </trkpt>
      <trkpt lat="42.59662" lon="-0.14465">
        <ele>1046.9</ele>
        <time>2017-07-30T11:44:10Z</time>
      </trkpt>
      <trkpt lat="42.59662" lon="-0.14461">
        <ele>1045.9</ele>
        <time>2017-07-30T11:44:14Z</time>
      </trkpt>
      <trkpt lat="42.59662" lon="-0.14457">
        <ele>1045</ele>
        <time>2017-07-30T11:44:17Z</time>
      </trkpt>
      <trkpt lat="42.59663" lon="-0.14452">
        <ele>1044.2</ele>
        <time>2017-07-30T11:44:19Z</time>
      </trkpt>
      <trkpt lat="42.59664" lon="-0.14446">
        <ele>1043.5</ele>
        <time>2017-07-30T11:44:21Z</time>
      </trkpt>
      <trkpt lat="42.59666" lon="-0.14441">
        <ele>1042.9</ele>
        <time>2017-07-30T11:44:23Z</time>
      </trkpt>
      <trkpt lat="42.59667" lon="-0.14437">
        <ele>1042.6</ele>
        <time>2017-07-30T11:44:25Z</time>
      </trkpt>
      <trkpt lat="42.59667" lon="-0.14432">
        <ele>1042.5</ele>
        <time>2017-07-30T11:44:27Z</time>
      </trkpt>
      <trkpt lat="42.59667" lon="-0.14428">
        <ele>1042.2</ele>
        <time>2017-07-30T11:44:29Z</time>
      </trkpt>
      <trkpt lat="42.59667" lon="-0.14424">
        <ele>1041.6</ele>
        <time>2017-07-30T11:44:31Z</time>
      </trkpt>
      <trkpt lat="42.59666" lon="-0.14419">
        <ele>1040.9</ele>
        <time>2017-07-30T11:44:33Z</time>
      </trkpt>
      <trkpt lat="42.59666" lon="-0.14415">
        <ele>1040</ele>
        <time>2017-07-30T11:44:35Z</time>
      </trkpt>
      <trkpt lat="42.59666" lon="-0.1441">
        <ele>1039</ele>
        <time>2017-07-30T11:44:37Z</time>
      </trkpt>
      <trkpt lat="42.59667" lon="-0.14405">
        <ele>1037.9</ele>
        <time>2017-07-30T11:44:40Z</time>
      </trkpt>
      <trkpt lat="42.59667" lon="-0.144">
        <ele>1037.2</ele>
        <time>2017-07-30T11:44:42Z</time>
      </trkpt>
      <trkpt lat="42.59668" lon="-0.14396">
        <ele>1036.4</ele>
        <time>2017-07-30T11:44:44Z</time>
      </trkpt>
      <trkpt lat="42.59668" lon="-0.14392">
        <ele>1036.2</ele>
        <time>2017-07-30T11:44:46Z</time>
      </trkpt>
      <trkpt lat="42.5967" lon="-0.14388">
        <ele>1036</ele>
        <time>2017-07-30T11:44:48Z</time>
      </trkpt>
      <trkpt lat="42.59671" lon="-0.14384">
        <ele>1035.7</ele>
        <time>2017-07-30T11:44:50Z</time>
      </trkpt>
      <trkpt lat="42.59671" lon="-0.14381">
        <ele>1034.7</ele>
        <time>2017-07-30T11:44:52Z</time>
      </trkpt>
      <trkpt lat="42.59672" lon="-0.14377">
        <ele>1033.7</ele>
        <time>2017-07-30T11:44:55Z</time>
      </trkpt>
      <trkpt lat="42.59671" lon="-0.14373">
        <ele>1033</ele>
        <time>2017-07-30T11:45:07Z</time>
      </trkpt>
      <trkpt lat="42.59671" lon="-0.14369">
        <ele>1032.7</ele>
        <time>2017-07-30T11:45:11Z</time>
      </trkpt>
      <trkpt lat="42.59672" lon="-0.14365">
        <ele>1032.3</ele>
        <time>2017-07-30T11:45:16Z</time>
      </trkpt>
      <trkpt lat="42.59673" lon="-0.14361">
        <ele>1031.4</ele>
        <time>2017-07-30T11:45:22Z</time>
      </trkpt>
      <trkpt lat="42.59673" lon="-0.14356">
        <ele>1030.1</ele>
        <time>2017-07-30T11:45:24Z</time>
      </trkpt>
      <trkpt lat="42.59673" lon="-0.14351">
        <ele>1029.1</ele>
        <time>2017-07-30T11:45:26Z</time>
      </trkpt>
      <trkpt lat="42.59672" lon="-0.14348">
        <ele>1028.8</ele>
        <time>2017-07-30T11:45:28Z</time>
      </trkpt>
      <trkpt lat="42.59672" lon="-0.14344">
        <ele>1028.5</ele>
        <time>2017-07-30T11:45:30Z</time>
      </trkpt>
      <trkpt lat="42.5967" lon="-0.14339">
        <ele>1028.1</ele>
        <time>2017-07-30T11:45:32Z</time>
      </trkpt>
      <trkpt lat="42.59668" lon="-0.14334">
        <ele>1027.6</ele>
        <time>2017-07-30T11:45:34Z</time>
      </trkpt>
      <trkpt lat="42.59667" lon="-0.14329">
        <ele>1026.7</ele>
        <time>2017-07-30T11:45:36Z</time>
      </trkpt>
      <trkpt lat="42.59669" lon="-0.14319">
        <ele>1025</ele>
        <time>2017-07-30T11:46:48Z</time>
      </trkpt>
      <trkpt lat="42.59668" lon="-0.14313">
        <ele>1023.9</ele>
        <time>2017-07-30T11:46:50Z</time>
      </trkpt>
      <trkpt lat="42.59667" lon="-0.14306">
        <ele>1022</ele>
        <time>2017-07-30T11:46:52Z</time>
      </trkpt>
      <trkpt lat="42.59667" lon="-0.143">
        <ele>1020.5</ele>
        <time>2017-07-30T11:46:54Z</time>
      </trkpt>
      <trkpt lat="42.59668" lon="-0.14295">
        <ele>1019.2</ele>
        <time>2017-07-30T11:46:56Z</time>
      </trkpt>
      <trkpt lat="42.59668" lon="-0.14289">
        <ele>1017.4</ele>
        <time>2017-07-30T11:46:58Z</time>
      </trkpt>
      <trkpt lat="42.5967" lon="-0.14283">
        <ele>1015.6</ele>
        <time>2017-07-30T11:47:00Z</time>
      </trkpt>
      <trkpt lat="42.59672" lon="-0.14278">
        <ele>1014.3</ele>
        <time>2017-07-30T11:47:02Z</time>
      </trkpt>
      <trkpt lat="42.59674" lon="-0.14274">
        <ele>1013.6</ele>
        <time>2017-07-30T11:47:04Z</time>
      </trkpt>
      <trkpt lat="42.59676" lon="-0.14269">
        <ele>1013.4</ele>
        <time>2017-07-30T11:47:06Z</time>
      </trkpt>
      <trkpt lat="42.59679" lon="-0.14265">
        <ele>1013</ele>
        <time>2017-07-30T11:47:08Z</time>
      </trkpt>
      <trkpt lat="42.59681" lon="-0.1426">
        <ele>1012.1</ele>
        <time>2017-07-30T11:47:10Z</time>
      </trkpt>
      <trkpt lat="42.59684" lon="-0.14255">
        <ele>1011.1</ele>
        <time>2017-07-30T11:47:12Z</time>
      </trkpt>
      <trkpt lat="42.59687" lon="-0.14251">
        <ele>1009.5</ele>
        <time>2017-07-30T11:47:14Z</time>
      </trkpt>
      <trkpt lat="42.5969" lon="-0.14247">
        <ele>1008.2</ele>
        <time>2017-07-30T11:47:16Z</time>
      </trkpt>
      <trkpt lat="42.59693" lon="-0.14243">
        <ele>1007.7</ele>
        <time>2017-07-30T11:47:18Z</time>
      </trkpt>
      <trkpt lat="42.59695" lon="-0.14241">
        <ele>1007.3</ele>
        <time>2017-07-30T11:47:20Z</time>
      </trkpt>
      <trkpt lat="42.59698" lon="-0.14238">
        <ele>1006.9</ele>
        <time>2017-07-30T11:47:22Z</time>
      </trkpt>
      <trkpt lat="42.597" lon="-0.14235">
        <ele>1006.6</ele>
        <time>2017-07-30T11:47:24Z</time>
      </trkpt>
      <trkpt lat="42.59702" lon="-0.14233">
        <ele>1006.3</ele>
        <time>2017-07-30T11:47:26Z</time>
      </trkpt>
      <trkpt lat="42.59705" lon="-0.14231">
        <ele>1006.2</ele>
        <time>2017-07-30T11:47:28Z</time>
      </trkpt>
      <trkpt lat="42.59707" lon="-0.14228">
        <ele>1006.3</ele>
        <time>2017-07-30T11:47:30Z</time>
      </trkpt>
      <trkpt lat="42.5971" lon="-0.14226">
        <ele>1006.4</ele>
        <time>2017-07-30T11:47:32Z</time>
      </trkpt>
      <trkpt lat="42.59712" lon="-0.14223">
        <ele>1006.5</ele>
        <time>2017-07-30T11:47:35Z</time>
      </trkpt>
      <trkpt lat="42.59715" lon="-0.14221">
        <ele>1006.7</ele>
        <time>2017-07-30T11:47:38Z</time>
      </trkpt>
      <trkpt lat="42.59718" lon="-0.14218">
        <ele>1006.9</ele>
        <time>2017-07-30T11:47:41Z</time>
      </trkpt>
      <trkpt lat="42.5972" lon="-0.14214">
        <ele>1007.1</ele>
        <time>2017-07-30T11:47:43Z</time>
      </trkpt>
      <trkpt lat="42.59722" lon="-0.1421">
        <ele>1007.4</ele>
        <time>2017-07-30T11:47:45Z</time>
      </trkpt>
      <trkpt lat="42.59724" lon="-0.14205">
        <ele>1007.2</ele>
        <time>2017-07-30T11:47:47Z</time>
      </trkpt>
      <trkpt lat="42.59727" lon="-0.14201">
        <ele>1006.4</ele>
        <time>2017-07-30T11:47:49Z</time>
      </trkpt>
      <trkpt lat="42.5973" lon="-0.14197">
        <ele>1006</ele>
        <time>2017-07-30T11:47:51Z</time>
      </trkpt>
      <trkpt lat="42.59734" lon="-0.14192">
        <ele>1006.2</ele>
        <time>2017-07-30T11:47:53Z</time>
      </trkpt>
      <trkpt lat="42.59736" lon="-0.14186">
        <ele>1006.2</ele>
        <time>2017-07-30T11:47:55Z</time>
      </trkpt>
      <trkpt lat="42.59738" lon="-0.14182">
        <ele>1006.2</ele>
        <time>2017-07-30T11:47:57Z</time>
      </trkpt>
      <trkpt lat="42.5974" lon="-0.14178">
        <ele>1006.3</ele>
        <time>2017-07-30T11:47:59Z</time>
      </trkpt>
      <trkpt lat="42.59742" lon="-0.14175">
        <ele>1006.4</ele>
        <time>2017-07-30T11:48:01Z</time>
      </trkpt>
      <trkpt lat="42.59744" lon="-0.14171">
        <ele>1006.9</ele>
        <time>2017-07-30T11:48:03Z</time>
      </trkpt>
      <trkpt lat="42.59746" lon="-0.14168">
        <ele>1008.1</ele>
        <time>2017-07-30T11:48:05Z</time>
      </trkpt>
      <trkpt lat="42.59747" lon="-0.14163">
        <ele>1009.2</ele>
        <time>2017-07-30T11:48:07Z</time>
      </trkpt>
      <trkpt lat="42.59747" lon="-0.14159">
        <ele>1009.2</ele>
        <time>2017-07-30T11:48:09Z</time>
      </trkpt>
      <trkpt lat="42.59748" lon="-0.14155">
        <ele>1008.9</ele>
        <time>2017-07-30T11:48:11Z</time>
      </trkpt>
      <trkpt lat="42.59751" lon="-0.14151">
        <ele>1008.9</ele>
        <time>2017-07-30T11:48:13Z</time>
      </trkpt>
      <trkpt lat="42.59754" lon="-0.14148">
        <ele>1008.8</ele>
        <time>2017-07-30T11:48:15Z</time>
      </trkpt>
      <trkpt lat="42.59757" lon="-0.14145">
        <ele>1009.6</ele>
        <time>2017-07-30T11:48:17Z</time>
      </trkpt>
      <trkpt lat="42.59759" lon="-0.14142">
        <ele>1009.4</ele>
        <time>2017-07-30T11:48:20Z</time>
      </trkpt>
      <trkpt lat="42.59761" lon="-0.14139">
        <ele>1008.5</ele>
        <time>2017-07-30T11:48:35Z</time>
      </trkpt>
      <trkpt lat="42.59764" lon="-0.14137">
        <ele>1009.5</ele>
        <time>2017-07-30T11:48:40Z</time>
      </trkpt>
      <trkpt lat="42.59766" lon="-0.14135">
        <ele>1008.9</ele>
        <time>2017-07-30T11:48:45Z</time>
      </trkpt>
      <trkpt lat="42.59769" lon="-0.14133">
        <ele>1009.9</ele>
        <time>2017-07-30T11:48:51Z</time>
      </trkpt>
      <trkpt lat="42.59772" lon="-0.14131">
        <ele>1008.8</ele>
        <time>2017-07-30T11:48:54Z</time>
      </trkpt>
      <trkpt lat="42.59775" lon="-0.14129">
        <ele>1009.7</ele>
        <time>2017-07-30T11:48:57Z</time>
      </trkpt>
      <trkpt lat="42.59777" lon="-0.14125">
        <ele>1007.8</ele>
        <time>2017-07-30T11:49:01Z</time>
      </trkpt>
      <trkpt lat="42.5978" lon="-0.14126">
        <ele>1009.3</ele>
        <time>2017-07-30T11:49:06Z</time>
      </trkpt>
      <trkpt lat="42.59784" lon="-0.14126">
        <ele>1010.4</ele>
        <time>2017-07-30T11:49:08Z</time>
      </trkpt>
      <trkpt lat="42.59787" lon="-0.14126">
        <ele>1009.6</ele>
        <time>2017-07-30T11:49:09Z</time>
      </trkpt>
      <trkpt lat="42.5979" lon="-0.14126">
        <ele>1008.5</ele>
        <time>2017-07-30T11:49:10Z</time>
      </trkpt>
      <trkpt lat="42.59793" lon="-0.14126">
        <ele>1007.4</ele>
        <time>2017-07-30T11:49:11Z</time>
      </trkpt>
      <trkpt lat="42.59797" lon="-0.14123">
        <ele>1004.8</ele>
        <time>2017-07-30T11:49:13Z</time>
      </trkpt>
      <trkpt lat="42.598" lon="-0.14121">
        <ele>1003.2</ele>
        <time>2017-07-30T11:49:15Z</time>
      </trkpt>
      <trkpt lat="42.59802" lon="-0.14117">
        <ele>1001.9</ele>
        <time>2017-07-30T11:49:17Z</time>
      </trkpt>
      <trkpt lat="42.59801" lon="-0.14113">
        <ele>1000.6</ele>
        <time>2017-07-30T11:49:21Z</time>
      </trkpt>
      <trkpt lat="42.59799" lon="-0.1411">
        <ele>998.2</ele>
        <time>2017-07-30T11:49:24Z</time>
      </trkpt>
      <trkpt lat="42.59797" lon="-0.14108">
        <ele>996.1</ele>
        <time>2017-07-30T11:49:27Z</time>
      </trkpt>
      <trkpt lat="42.59796" lon="-0.14104">
        <ele>994.5</ele>
        <time>2017-07-30T11:49:31Z</time>
      </trkpt>
      <trkpt lat="42.59797" lon="-0.141">
        <ele>993.3</ele>
        <time>2017-07-30T11:49:34Z</time>
      </trkpt>
      <trkpt lat="42.59797" lon="-0.14095">
        <ele>992.1</ele>
        <time>2017-07-30T11:49:37Z</time>
      </trkpt>
      <trkpt lat="42.59798" lon="-0.14091">
        <ele>991.3</ele>
        <time>2017-07-30T11:49:40Z</time>
      </trkpt>
      <trkpt lat="42.59798" lon="-0.14086">
        <ele>990.3</ele>
        <time>2017-07-30T11:49:43Z</time>
      </trkpt>
      <trkpt lat="42.59799" lon="-0.14081">
        <ele>989</ele>
        <time>2017-07-30T11:49:45Z</time>
      </trkpt>
      <trkpt lat="42.598" lon="-0.14076">
        <ele>987.4</ele>
        <time>2017-07-30T11:49:47Z</time>
      </trkpt>
      <trkpt lat="42.59799" lon="-0.14071">
        <ele>986.7</ele>
        <time>2017-07-30T11:49:49Z</time>
      </trkpt>
      <trkpt lat="42.59799" lon="-0.14067">
        <ele>986.4</ele>
        <time>2017-07-30T11:49:51Z</time>
      </trkpt>
      <trkpt lat="42.59797" lon="-0.14062">
        <ele>985.9</ele>
        <time>2017-07-30T11:49:53Z</time>
      </trkpt>
      <trkpt lat="42.59795" lon="-0.14056">
        <ele>983.5</ele>
        <time>2017-07-30T11:49:55Z</time>
      </trkpt>
      <trkpt lat="42.59793" lon="-0.1405">
        <ele>981.5</ele>
        <time>2017-07-30T11:49:57Z</time>
      </trkpt>
      <trkpt lat="42.59792" lon="-0.14043">
        <ele>980.1</ele>
        <time>2017-07-30T11:49:59Z</time>
      </trkpt>
      <trkpt lat="42.59791" lon="-0.14037">
        <ele>978.9</ele>
        <time>2017-07-30T11:50:01Z</time>
      </trkpt>
      <trkpt lat="42.59789" lon="-0.14031">
        <ele>977.6</ele>
        <time>2017-07-30T11:50:03Z</time>
      </trkpt>
      <trkpt lat="42.59787" lon="-0.14027">
        <ele>976.6</ele>
        <time>2017-07-30T11:50:05Z</time>
      </trkpt>
      <trkpt lat="42.59784" lon="-0.14021">
        <ele>976.1</ele>
        <time>2017-07-30T11:50:07Z</time>
      </trkpt>
      <trkpt lat="42.59782" lon="-0.14017">
        <ele>975.7</ele>
        <time>2017-07-30T11:50:08Z</time>
      </trkpt>
      <trkpt lat="42.59779" lon="-0.14013">
        <ele>975.4</ele>
        <time>2017-07-30T11:50:09Z</time>
      </trkpt>
      <trkpt lat="42.59777" lon="-0.1401">
        <ele>975.2</ele>
        <time>2017-07-30T11:50:10Z</time>
      </trkpt>
      <trkpt lat="42.59776" lon="-0.14006">
        <ele>975.1</ele>
        <time>2017-07-30T11:50:11Z</time>
      </trkpt>
      <trkpt lat="42.59775" lon="-0.14002">
        <ele>975</ele>
        <time>2017-07-30T11:50:12Z</time>
      </trkpt>
      <trkpt lat="42.59775" lon="-0.13997">
        <ele>975</ele>
        <time>2017-07-30T11:50:13Z</time>
      </trkpt>
      <trkpt lat="42.59776" lon="-0.13992">
        <ele>975.2</ele>
        <time>2017-07-30T11:50:14Z</time>
      </trkpt>
      <trkpt lat="42.59777" lon="-0.13986">
        <ele>975.3</ele>
        <time>2017-07-30T11:50:15Z</time>
      </trkpt>
      <trkpt lat="42.59778" lon="-0.13981">
        <ele>975.2</ele>
        <time>2017-07-30T11:50:16Z</time>
      </trkpt>
      <trkpt lat="42.59779" lon="-0.13975">
        <ele>975</ele>
        <time>2017-07-30T11:50:17Z</time>
      </trkpt>
      <trkpt lat="42.5978" lon="-0.13969">
        <ele>975.1</ele>
        <time>2017-07-30T11:50:18Z</time>
      </trkpt>
      <trkpt lat="42.59781" lon="-0.13964">
        <ele>975.2</ele>
        <time>2017-07-30T11:50:19Z</time>
      </trkpt>
      <trkpt lat="42.59782" lon="-0.13959">
        <ele>975.1</ele>
        <time>2017-07-30T11:50:20Z</time>
      </trkpt>
      <trkpt lat="42.59783" lon="-0.13954">
        <ele>974.7</ele>
        <time>2017-07-30T11:50:21Z</time>
      </trkpt>
      <trkpt lat="42.59784" lon="-0.13949">
        <ele>974.6</ele>
        <time>2017-07-30T11:50:22Z</time>
      </trkpt>
      <trkpt lat="42.59785" lon="-0.13944">
        <ele>974.8</ele>
        <time>2017-07-30T11:50:23Z</time>
      </trkpt>
      <trkpt lat="42.59786" lon="-0.13938">
        <ele>975.1</ele>
        <time>2017-07-30T11:50:24Z</time>
      </trkpt>
      <trkpt lat="42.59787" lon="-0.13933">
        <ele>975.6</ele>
        <time>2017-07-30T11:50:25Z</time>
      </trkpt>
      <trkpt lat="42.59789" lon="-0.13928">
        <ele>976.1</ele>
        <time>2017-07-30T11:50:26Z</time>
      </trkpt>
      <trkpt lat="42.5979" lon="-0.13922">
        <ele>976.8</ele>
        <time>2017-07-30T11:50:27Z</time>
      </trkpt>
      <trkpt lat="42.59792" lon="-0.13917">
        <ele>977.3</ele>
        <time>2017-07-30T11:50:28Z</time>
      </trkpt>
      <trkpt lat="42.59794" lon="-0.13912">
        <ele>977.8</ele>
        <time>2017-07-30T11:50:29Z</time>
      </trkpt>
      <trkpt lat="42.59795" lon="-0.13908">
        <ele>978</ele>
        <time>2017-07-30T11:50:30Z</time>
      </trkpt>
      <trkpt lat="42.59797" lon="-0.13904">
        <ele>978.2</ele>
        <time>2017-07-30T11:50:31Z</time>
      </trkpt>
      <trkpt lat="42.59799" lon="-0.13901">
        <ele>978.3</ele>
        <time>2017-07-30T11:50:32Z</time>
      </trkpt>
      <trkpt lat="42.598" lon="-0.13897">
        <ele>978.4</ele>
        <time>2017-07-30T11:50:33Z</time>
      </trkpt>
      <trkpt lat="42.59803" lon="-0.13891">
        <ele>978</ele>
        <time>2017-07-30T11:50:35Z</time>
      </trkpt>
      <trkpt lat="42.59805" lon="-0.13887">
        <ele>977.5</ele>
        <time>2017-07-30T11:50:36Z</time>
      </trkpt>
      <trkpt lat="42.59806" lon="-0.13883">
        <ele>977.1</ele>
        <time>2017-07-30T11:50:37Z</time>
      </trkpt>
      <trkpt lat="42.59808" lon="-0.13879">
        <ele>976.9</ele>
        <time>2017-07-30T11:50:38Z</time>
      </trkpt>
      <trkpt lat="42.59809" lon="-0.13875">
        <ele>976.8</ele>
        <time>2017-07-30T11:50:39Z</time>
      </trkpt>
      <trkpt lat="42.59811" lon="-0.1387">
        <ele>976.5</ele>
        <time>2017-07-30T11:50:40Z</time>
      </trkpt>
      <trkpt lat="42.59812" lon="-0.13865">
        <ele>976.3</ele>
        <time>2017-07-30T11:50:41Z</time>
      </trkpt>
      <trkpt lat="42.59813" lon="-0.13861">
        <ele>975.9</ele>
        <time>2017-07-30T11:50:42Z</time>
      </trkpt>
      <trkpt lat="42.59814" lon="-0.13856">
        <ele>975.5</ele>
        <time>2017-07-30T11:50:43Z</time>
      </trkpt>
      <trkpt lat="42.59814" lon="-0.13851">
        <ele>975.3</ele>
        <time>2017-07-30T11:50:44Z</time>
      </trkpt>
      <trkpt lat="42.59815" lon="-0.13846">
        <ele>975.3</ele>
        <time>2017-07-30T11:50:45Z</time>
      </trkpt>
      <trkpt lat="42.59816" lon="-0.13841">
        <ele>975.3</ele>
        <time>2017-07-30T11:50:46Z</time>
      </trkpt>
      <trkpt lat="42.59816" lon="-0.13837">
        <ele>975.6</ele>
        <time>2017-07-30T11:50:47Z</time>
      </trkpt>
      <trkpt lat="42.59817" lon="-0.13831">
        <ele>976</ele>
        <time>2017-07-30T11:50:49Z</time>
      </trkpt>
      <trkpt lat="42.59817" lon="-0.13826">
        <ele>976.3</ele>
        <time>2017-07-30T11:50:51Z</time>
      </trkpt>
      <trkpt lat="42.59819" lon="-0.1382">
        <ele>976.7</ele>
        <time>2017-07-30T11:50:53Z</time>
      </trkpt>
      <trkpt lat="42.5982" lon="-0.13817">
        <ele>977.1</ele>
        <time>2017-07-30T11:50:54Z</time>
      </trkpt>
      <trkpt lat="42.59822" lon="-0.13814">
        <ele>977.8</ele>
        <time>2017-07-30T11:50:55Z</time>
      </trkpt>
      <trkpt lat="42.59824" lon="-0.13811">
        <ele>978.4</ele>
        <time>2017-07-30T11:50:56Z</time>
      </trkpt>
      <trkpt lat="42.59826" lon="-0.13808">
        <ele>978.5</ele>
        <time>2017-07-30T11:50:57Z</time>
      </trkpt>
      <trkpt lat="42.59827" lon="-0.13805">
        <ele>978.3</ele>
        <time>2017-07-30T11:50:58Z</time>
      </trkpt>
      <trkpt lat="42.59829" lon="-0.13801">
        <ele>978.1</ele>
        <time>2017-07-30T11:50:59Z</time>
      </trkpt>
      <trkpt lat="42.59831" lon="-0.13797">
        <ele>978.3</ele>
        <time>2017-07-30T11:51:00Z</time>
      </trkpt>
      <trkpt lat="42.59833" lon="-0.13794">
        <ele>978.5</ele>
        <time>2017-07-30T11:51:01Z</time>
      </trkpt>
      <trkpt lat="42.59834" lon="-0.13791">
        <ele>978.8</ele>
        <time>2017-07-30T11:51:02Z</time>
      </trkpt>
      <trkpt lat="42.59837" lon="-0.13786">
        <ele>979.7</ele>
        <time>2017-07-30T11:51:04Z</time>
      </trkpt>
      <trkpt lat="42.5984" lon="-0.13779">
        <ele>980.5</ele>
        <time>2017-07-30T11:51:06Z</time>
      </trkpt>
      <trkpt lat="42.59842" lon="-0.13776">
        <ele>980.5</ele>
        <time>2017-07-30T11:51:07Z</time>
      </trkpt>
      <trkpt lat="42.59844" lon="-0.13772">
        <ele>980.6</ele>
        <time>2017-07-30T11:51:08Z</time>
      </trkpt>
      <trkpt lat="42.59846" lon="-0.13768">
        <ele>980.6</ele>
        <time>2017-07-30T11:51:09Z</time>
      </trkpt>
      <trkpt lat="42.59848" lon="-0.13765">
        <ele>980.6</ele>
        <time>2017-07-30T11:51:10Z</time>
      </trkpt>
      <trkpt lat="42.5985" lon="-0.13761">
        <ele>980.1</ele>
        <time>2017-07-30T11:51:11Z</time>
      </trkpt>
      <trkpt lat="42.59851" lon="-0.13756">
        <ele>979</ele>
        <time>2017-07-30T11:51:12Z</time>
      </trkpt>
      <trkpt lat="42.59852" lon="-0.13752">
        <ele>978</ele>
        <time>2017-07-30T11:51:13Z</time>
      </trkpt>
      <trkpt lat="42.59853" lon="-0.13747">
        <ele>978</ele>
        <time>2017-07-30T11:51:14Z</time>
      </trkpt>
      <trkpt lat="42.59853" lon="-0.13741">
        <ele>978</ele>
        <time>2017-07-30T11:51:15Z</time>
      </trkpt>
      <trkpt lat="42.59853" lon="-0.13736">
        <ele>977.9</ele>
        <time>2017-07-30T11:51:16Z</time>
      </trkpt>
      <trkpt lat="42.59854" lon="-0.1373">
        <ele>977.7</ele>
        <time>2017-07-30T11:51:17Z</time>
      </trkpt>
      <trkpt lat="42.59855" lon="-0.13724">
        <ele>977.3</ele>
        <time>2017-07-30T11:51:18Z</time>
      </trkpt>
      <trkpt lat="42.59856" lon="-0.13718">
        <ele>977</ele>
        <time>2017-07-30T11:51:19Z</time>
      </trkpt>
      <trkpt lat="42.59858" lon="-0.13712">
        <ele>977.3</ele>
        <time>2017-07-30T11:51:20Z</time>
      </trkpt>
      <trkpt lat="42.59859" lon="-0.13705">
        <ele>977.8</ele>
        <time>2017-07-30T11:51:21Z</time>
      </trkpt>
      <trkpt lat="42.59861" lon="-0.13698">
        <ele>978.3</ele>
        <time>2017-07-30T11:51:22Z</time>
      </trkpt>
      <trkpt lat="42.59862" lon="-0.13693">
        <ele>978.2</ele>
        <time>2017-07-30T11:51:23Z</time>
      </trkpt>
      <trkpt lat="42.59863" lon="-0.13689">
        <ele>977.7</ele>
        <time>2017-07-30T11:51:24Z</time>
      </trkpt>
      <trkpt lat="42.59863" lon="-0.13686">
        <ele>977.2</ele>
        <time>2017-07-30T11:51:25Z</time>
      </trkpt>
      <trkpt lat="42.59864" lon="-0.13682">
        <ele>977.4</ele>
        <time>2017-07-30T11:51:26Z</time>
      </trkpt>
      <trkpt lat="42.59865" lon="-0.13676">
        <ele>977.7</ele>
        <time>2017-07-30T11:51:28Z</time>
      </trkpt>
      <trkpt lat="42.59865" lon="-0.13671">
        <ele>976.9</ele>
        <time>2017-07-30T11:51:30Z</time>
      </trkpt>
      <trkpt lat="42.59865" lon="-0.13665">
        <ele>974.9</ele>
        <time>2017-07-30T11:51:32Z</time>
      </trkpt>
      <trkpt lat="42.59865" lon="-0.13659">
        <ele>973.4</ele>
        <time>2017-07-30T11:51:34Z</time>
      </trkpt>
      <trkpt lat="42.59863" lon="-0.13654">
        <ele>972.3</ele>
        <time>2017-07-30T11:51:36Z</time>
      </trkpt>
      <trkpt lat="42.59861" lon="-0.13648">
        <ele>971.3</ele>
        <time>2017-07-30T11:51:38Z</time>
      </trkpt>
      <trkpt lat="42.5986" lon="-0.13642">
        <ele>970.4</ele>
        <time>2017-07-30T11:51:40Z</time>
      </trkpt>
      <trkpt lat="42.59859" lon="-0.13638">
        <ele>969.7</ele>
        <time>2017-07-30T11:51:42Z</time>
      </trkpt>
      <trkpt lat="42.5986" lon="-0.13633">
        <ele>968.4</ele>
        <time>2017-07-30T11:51:44Z</time>
      </trkpt>
      <trkpt lat="42.5986" lon="-0.13627">
        <ele>967.1</ele>
        <time>2017-07-30T11:51:46Z</time>
      </trkpt>
      <trkpt lat="42.5986" lon="-0.13622">
        <ele>966.3</ele>
        <time>2017-07-30T11:51:48Z</time>
      </trkpt>
      <trkpt lat="42.5986" lon="-0.13618">
        <ele>965.8</ele>
        <time>2017-07-30T11:51:50Z</time>
      </trkpt>
      <trkpt lat="42.59861" lon="-0.13612">
        <ele>965.2</ele>
        <time>2017-07-30T11:51:52Z</time>
      </trkpt>
      <trkpt lat="42.59862" lon="-0.13608">
        <ele>964.9</ele>
        <time>2017-07-30T11:51:53Z</time>
      </trkpt>
      <trkpt lat="42.59862" lon="-0.13603">
        <ele>964.7</ele>
        <time>2017-07-30T11:51:54Z</time>
      </trkpt>
      <trkpt lat="42.59862" lon="-0.13599">
        <ele>964.2</ele>
        <time>2017-07-30T11:51:55Z</time>
      </trkpt>
      <trkpt lat="42.59863" lon="-0.13595">
        <ele>963.3</ele>
        <time>2017-07-30T11:51:56Z</time>
      </trkpt>
      <trkpt lat="42.59864" lon="-0.1359">
        <ele>962.5</ele>
        <time>2017-07-30T11:51:57Z</time>
      </trkpt>
      <trkpt lat="42.59865" lon="-0.13587">
        <ele>962</ele>
        <time>2017-07-30T11:51:58Z</time>
      </trkpt>
      <trkpt lat="42.59867" lon="-0.13583">
        <ele>961.6</ele>
        <time>2017-07-30T11:51:59Z</time>
      </trkpt>
      <trkpt lat="42.59869" lon="-0.13578">
        <ele>960.9</ele>
        <time>2017-07-30T11:52:00Z</time>
      </trkpt>
      <trkpt lat="42.5987" lon="-0.13574">
        <ele>960</ele>
        <time>2017-07-30T11:52:01Z</time>
      </trkpt>
      <trkpt lat="42.59872" lon="-0.1357">
        <ele>959.3</ele>
        <time>2017-07-30T11:52:02Z</time>
      </trkpt>
      <trkpt lat="42.59873" lon="-0.13564">
        <ele>958.2</ele>
        <time>2017-07-30T11:52:04Z</time>
      </trkpt>
      <trkpt lat="42.59874" lon="-0.1356">
        <ele>957.6</ele>
        <time>2017-07-30T11:52:05Z</time>
      </trkpt>
      <trkpt lat="42.59874" lon="-0.13557">
        <ele>957</ele>
        <time>2017-07-30T11:52:07Z</time>
      </trkpt>
      <trkpt lat="42.59873" lon="-0.13551">
        <ele>955.9</ele>
        <time>2017-07-30T11:52:10Z</time>
      </trkpt>
      <trkpt lat="42.59874" lon="-0.13544">
        <ele>954.7</ele>
        <time>2017-07-30T11:52:12Z</time>
      </trkpt>
      <trkpt lat="42.59877" lon="-0.13538">
        <ele>953.5</ele>
        <time>2017-07-30T11:52:14Z</time>
      </trkpt>
      <trkpt lat="42.59878" lon="-0.13534">
        <ele>952.9</ele>
        <time>2017-07-30T11:52:15Z</time>
      </trkpt>
      <trkpt lat="42.59879" lon="-0.13529">
        <ele>952.7</ele>
        <time>2017-07-30T11:52:16Z</time>
      </trkpt>
      <trkpt lat="42.5988" lon="-0.13523">
        <ele>952.8</ele>
        <time>2017-07-30T11:52:17Z</time>
      </trkpt>
      <trkpt lat="42.5988" lon="-0.13519">
        <ele>952.3</ele>
        <time>2017-07-30T11:52:18Z</time>
      </trkpt>
      <trkpt lat="42.59881" lon="-0.13515">
        <ele>951.4</ele>
        <time>2017-07-30T11:52:19Z</time>
      </trkpt>
      <trkpt lat="42.59884" lon="-0.13511">
        <ele>950</ele>
        <time>2017-07-30T11:52:21Z</time>
      </trkpt>
      <trkpt lat="42.59885" lon="-0.13507">
        <ele>949.5</ele>
        <time>2017-07-30T11:52:24Z</time>
      </trkpt>
      <trkpt lat="42.59884" lon="-0.13503">
        <ele>949.2</ele>
        <time>2017-07-30T11:52:26Z</time>
      </trkpt>
      <trkpt lat="42.59886" lon="-0.13498">
        <ele>948.4</ele>
        <time>2017-07-30T11:52:28Z</time>
      </trkpt>
      <trkpt lat="42.59889" lon="-0.13493">
        <ele>947</ele>
        <time>2017-07-30T11:52:30Z</time>
      </trkpt>
      <trkpt lat="42.59891" lon="-0.13487">
        <ele>945.6</ele>
        <time>2017-07-30T11:52:32Z</time>
      </trkpt>
      <trkpt lat="42.59891" lon="-0.13484">
        <ele>944.8</ele>
        <time>2017-07-30T11:52:36Z</time>
      </trkpt>
      <trkpt lat="42.59893" lon="-0.13478">
        <ele>943.4</ele>
        <time>2017-07-30T11:52:39Z</time>
      </trkpt>
      <trkpt lat="42.59893" lon="-0.13472">
        <ele>940.6</ele>
        <time>2017-07-30T11:52:41Z</time>
      </trkpt>
      <trkpt lat="42.59893" lon="-0.13468">
        <ele>939</ele>
        <time>2017-07-30T11:52:42Z</time>
      </trkpt>
      <trkpt lat="42.59894" lon="-0.13465">
        <ele>938.2</ele>
        <time>2017-07-30T11:52:43Z</time>
      </trkpt>
      <trkpt lat="42.59895" lon="-0.13461">
        <ele>937.6</ele>
        <time>2017-07-30T11:52:44Z</time>
      </trkpt>
      <trkpt lat="42.59895" lon="-0.13457">
        <ele>937</ele>
        <time>2017-07-30T11:52:45Z</time>
      </trkpt>
      <trkpt lat="42.59896" lon="-0.13453">
        <ele>936.1</ele>
        <time>2017-07-30T11:52:46Z</time>
      </trkpt>
      <trkpt lat="42.59897" lon="-0.13449">
        <ele>935.3</ele>
        <time>2017-07-30T11:52:47Z</time>
      </trkpt>
      <trkpt lat="42.59898" lon="-0.13442">
        <ele>933.9</ele>
        <time>2017-07-30T11:52:49Z</time>
      </trkpt>
      <trkpt lat="42.59899" lon="-0.13439">
        <ele>933.2</ele>
        <time>2017-07-30T11:52:50Z</time>
      </trkpt>
      <trkpt lat="42.59899" lon="-0.13435">
        <ele>932.2</ele>
        <time>2017-07-30T11:52:51Z</time>
      </trkpt>
      <trkpt lat="42.59899" lon="-0.13431">
        <ele>930.8</ele>
        <time>2017-07-30T11:52:52Z</time>
      </trkpt>
      <trkpt lat="42.59898" lon="-0.13424">
        <ele>928.8</ele>
        <time>2017-07-30T11:52:54Z</time>
      </trkpt>
      <trkpt lat="42.59897" lon="-0.13421">
        <ele>928.2</ele>
        <time>2017-07-30T11:52:55Z</time>
      </trkpt>
      <trkpt lat="42.59896" lon="-0.13418">
        <ele>927.6</ele>
        <time>2017-07-30T11:52:56Z</time>
      </trkpt>
      <trkpt lat="42.59894" lon="-0.13413">
        <ele>926.2</ele>
        <time>2017-07-30T11:52:58Z</time>
      </trkpt>
      <trkpt lat="42.59892" lon="-0.1341">
        <ele>925</ele>
        <time>2017-07-30T11:53:00Z</time>
      </trkpt>
      <trkpt lat="42.59892" lon="-0.13406">
        <ele>923.5</ele>
        <time>2017-07-30T11:53:29Z</time>
      </trkpt>
      <trkpt lat="42.5989" lon="-0.13404">
        <ele>922.1</ele>
        <time>2017-07-30T11:53:34Z</time>
      </trkpt>
      <trkpt lat="42.59887" lon="-0.13402">
        <ele>921.2</ele>
        <time>2017-07-30T11:53:38Z</time>
      </trkpt>
      <trkpt lat="42.59885" lon="-0.13399">
        <ele>920.6</ele>
        <time>2017-07-30T11:53:42Z</time>
      </trkpt>
      <trkpt lat="42.59882" lon="-0.13395">
        <ele>919.9</ele>
        <time>2017-07-30T11:53:45Z</time>
      </trkpt>
      <trkpt lat="42.59879" lon="-0.13391">
        <ele>919.4</ele>
        <time>2017-07-30T11:53:47Z</time>
      </trkpt>
      <trkpt lat="42.59876" lon="-0.13387">
        <ele>918.3</ele>
        <time>2017-07-30T11:53:49Z</time>
      </trkpt>
      <trkpt lat="42.59873" lon="-0.13382">
        <ele>917.5</ele>
        <time>2017-07-30T11:53:51Z</time>
      </trkpt>
      <trkpt lat="42.5987" lon="-0.13377">
        <ele>917.1</ele>
        <time>2017-07-30T11:53:53Z</time>
      </trkpt>
      <trkpt lat="42.59868" lon="-0.13373">
        <ele>916.5</ele>
        <time>2017-07-30T11:53:55Z</time>
      </trkpt>
      <trkpt lat="42.59867" lon="-0.13368">
        <ele>916.1</ele>
        <time>2017-07-30T11:53:57Z</time>
      </trkpt>
      <trkpt lat="42.59866" lon="-0.13363">
        <ele>915.4</ele>
        <time>2017-07-30T11:53:59Z</time>
      </trkpt>
      <trkpt lat="42.59863" lon="-0.13358">
        <ele>914.7</ele>
        <time>2017-07-30T11:54:01Z</time>
      </trkpt>
      <trkpt lat="42.59861" lon="-0.13354">
        <ele>914.2</ele>
        <time>2017-07-30T11:54:03Z</time>
      </trkpt>
      <trkpt lat="42.5986" lon="-0.13348">
        <ele>913.8</ele>
        <time>2017-07-30T11:54:05Z</time>
      </trkpt>
      <trkpt lat="42.59861" lon="-0.13342">
        <ele>913.1</ele>
        <time>2017-07-30T11:54:07Z</time>
      </trkpt>
      <trkpt lat="42.59862" lon="-0.13337">
        <ele>912.3</ele>
        <time>2017-07-30T11:54:09Z</time>
      </trkpt>
      <trkpt lat="42.59863" lon="-0.13331">
        <ele>911.6</ele>
        <time>2017-07-30T11:54:11Z</time>
      </trkpt>
      <trkpt lat="42.59864" lon="-0.13326">
        <ele>911.2</ele>
        <time>2017-07-30T11:54:13Z</time>
      </trkpt>
      <trkpt lat="42.59866" lon="-0.13321">
        <ele>910.6</ele>
        <time>2017-07-30T11:54:15Z</time>
      </trkpt>
      <trkpt lat="42.59868" lon="-0.13316">
        <ele>909.6</ele>
        <time>2017-07-30T11:54:17Z</time>
      </trkpt>
      <trkpt lat="42.5987" lon="-0.13309">
        <ele>908.1</ele>
        <time>2017-07-30T11:54:19Z</time>
      </trkpt>
      <trkpt lat="42.59871" lon="-0.13301">
        <ele>906.8</ele>
        <time>2017-07-30T11:54:21Z</time>
      </trkpt>
      <trkpt lat="42.59872" lon="-0.13294">
        <ele>905.8</ele>
        <time>2017-07-30T11:54:23Z</time>
      </trkpt>
      <trkpt lat="42.59873" lon="-0.1329">
        <ele>905.1</ele>
        <time>2017-07-30T11:54:24Z</time>
      </trkpt>
      <trkpt lat="42.59873" lon="-0.13287">
        <ele>904.3</ele>
        <time>2017-07-30T11:54:25Z</time>
      </trkpt>
      <trkpt lat="42.59873" lon="-0.13283">
        <ele>903.5</ele>
        <time>2017-07-30T11:54:26Z</time>
      </trkpt>
      <trkpt lat="42.59874" lon="-0.13278">
        <ele>903</ele>
        <time>2017-07-30T11:54:27Z</time>
      </trkpt>
      <trkpt lat="42.59875" lon="-0.13274">
        <ele>902.9</ele>
        <time>2017-07-30T11:54:28Z</time>
      </trkpt>
      <trkpt lat="42.59876" lon="-0.13269">
        <ele>902.8</ele>
        <time>2017-07-30T11:54:29Z</time>
      </trkpt>
      <trkpt lat="42.59878" lon="-0.13265">
        <ele>903</ele>
        <time>2017-07-30T11:54:30Z</time>
      </trkpt>
      <trkpt lat="42.59879" lon="-0.13259">
        <ele>903.5</ele>
        <time>2017-07-30T11:54:32Z</time>
      </trkpt>
      <trkpt lat="42.59881" lon="-0.13254">
        <ele>903.9</ele>
        <time>2017-07-30T11:54:34Z</time>
      </trkpt>
      <trkpt lat="42.59884" lon="-0.13248">
        <ele>904.6</ele>
        <time>2017-07-30T11:54:36Z</time>
      </trkpt>
      <trkpt lat="42.59885" lon="-0.13245">
        <ele>905</ele>
        <time>2017-07-30T11:54:37Z</time>
      </trkpt>
      <trkpt lat="42.59887" lon="-0.13241">
        <ele>905.4</ele>
        <time>2017-07-30T11:54:38Z</time>
      </trkpt>
      <trkpt lat="42.59889" lon="-0.13237">
        <ele>905.4</ele>
        <time>2017-07-30T11:54:39Z</time>
      </trkpt>
      <trkpt lat="42.59891" lon="-0.13233">
        <ele>905</ele>
        <time>2017-07-30T11:54:40Z</time>
      </trkpt>
      <trkpt lat="42.59892" lon="-0.1323">
        <ele>904.5</ele>
        <time>2017-07-30T11:54:41Z</time>
      </trkpt>
      <trkpt lat="42.59894" lon="-0.13226">
        <ele>904.2</ele>
        <time>2017-07-30T11:54:42Z</time>
      </trkpt>
      <trkpt lat="42.59895" lon="-0.13222">
        <ele>904</ele>
        <time>2017-07-30T11:54:43Z</time>
      </trkpt>
      <trkpt lat="42.59897" lon="-0.13219">
        <ele>903.8</ele>
        <time>2017-07-30T11:54:44Z</time>
      </trkpt>
      <trkpt lat="42.59899" lon="-0.13213">
        <ele>903.4</ele>
        <time>2017-07-30T11:54:46Z</time>
      </trkpt>
      <trkpt lat="42.599" lon="-0.13207">
        <ele>903.1</ele>
        <time>2017-07-30T11:54:48Z</time>
      </trkpt>
      <trkpt lat="42.59901" lon="-0.13202">
        <ele>903.1</ele>
        <time>2017-07-30T11:54:49Z</time>
      </trkpt>
      <trkpt lat="42.59902" lon="-0.13198">
        <ele>903.2</ele>
        <time>2017-07-30T11:54:50Z</time>
      </trkpt>
      <trkpt lat="42.59903" lon="-0.13193">
        <ele>903.2</ele>
        <time>2017-07-30T11:54:51Z</time>
      </trkpt>
      <trkpt lat="42.59905" lon="-0.13189">
        <ele>903.3</ele>
        <time>2017-07-30T11:54:52Z</time>
      </trkpt>
      <trkpt lat="42.59906" lon="-0.13185">
        <ele>903.5</ele>
        <time>2017-07-30T11:54:53Z</time>
      </trkpt>
      <trkpt lat="42.59907" lon="-0.13182">
        <ele>903.7</ele>
        <time>2017-07-30T11:54:54Z</time>
      </trkpt>
      <trkpt lat="42.59907" lon="-0.13178">
        <ele>903.9</ele>
        <time>2017-07-30T11:54:55Z</time>
      </trkpt>
      <trkpt lat="42.59909" lon="-0.13174">
        <ele>904.2</ele>
        <time>2017-07-30T11:54:56Z</time>
      </trkpt>
      <trkpt lat="42.5991" lon="-0.1317">
        <ele>904.2</ele>
        <time>2017-07-30T11:54:57Z</time>
      </trkpt>
      <trkpt lat="42.59911" lon="-0.13167">
        <ele>904.1</ele>
        <time>2017-07-30T11:54:58Z</time>
      </trkpt>
      <trkpt lat="42.59913" lon="-0.13162">
        <ele>903.9</ele>
        <time>2017-07-30T11:55:00Z</time>
      </trkpt>
      <trkpt lat="42.59915" lon="-0.13155">
        <ele>903.9</ele>
        <time>2017-07-30T11:55:02Z</time>
      </trkpt>
      <trkpt lat="42.59917" lon="-0.13148">
        <ele>903.4</ele>
        <time>2017-07-30T11:55:04Z</time>
      </trkpt>
      <trkpt lat="42.59918" lon="-0.13142">
        <ele>902.2</ele>
        <time>2017-07-30T11:55:06Z</time>
      </trkpt>
      <trkpt lat="42.59918" lon="-0.13137">
        <ele>901.5</ele>
        <time>2017-07-30T11:55:07Z</time>
      </trkpt>
      <trkpt lat="42.59918" lon="-0.13133">
        <ele>901.1</ele>
        <time>2017-07-30T11:55:08Z</time>
      </trkpt>
      <trkpt lat="42.59918" lon="-0.13128">
        <ele>900.7</ele>
        <time>2017-07-30T11:55:09Z</time>
      </trkpt>
      <trkpt lat="42.59917" lon="-0.13124">
        <ele>900.4</ele>
        <time>2017-07-30T11:55:10Z</time>
      </trkpt>
      <trkpt lat="42.59917" lon="-0.13119">
        <ele>900.4</ele>
        <time>2017-07-30T11:55:11Z</time>
      </trkpt>
      <trkpt lat="42.59917" lon="-0.13114">
        <ele>900.4</ele>
        <time>2017-07-30T11:55:12Z</time>
      </trkpt>
      <trkpt lat="42.59916" lon="-0.1311">
        <ele>900.5</ele>
        <time>2017-07-30T11:55:13Z</time>
      </trkpt>
      <trkpt lat="42.59916" lon="-0.13107">
        <ele>900.6</ele>
        <time>2017-07-30T11:55:14Z</time>
      </trkpt>
      <trkpt lat="42.59915" lon="-0.13103">
        <ele>900.7</ele>
        <time>2017-07-30T11:55:15Z</time>
      </trkpt>
      <trkpt lat="42.59915" lon="-0.13098">
        <ele>900.7</ele>
        <time>2017-07-30T11:55:16Z</time>
      </trkpt>
      <trkpt lat="42.59915" lon="-0.13093">
        <ele>900.7</ele>
        <time>2017-07-30T11:55:17Z</time>
      </trkpt>
      <trkpt lat="42.59915" lon="-0.13088">
        <ele>900.8</ele>
        <time>2017-07-30T11:55:18Z</time>
      </trkpt>
      <trkpt lat="42.59916" lon="-0.13081">
        <ele>901.1</ele>
        <time>2017-07-30T11:55:19Z</time>
      </trkpt>
      <trkpt lat="42.59916" lon="-0.13074">
        <ele>901.5</ele>
        <time>2017-07-30T11:55:20Z</time>
      </trkpt>
      <trkpt lat="42.59917" lon="-0.13067">
        <ele>901.8</ele>
        <time>2017-07-30T11:55:21Z</time>
      </trkpt>
      <trkpt lat="42.59917" lon="-0.13059">
        <ele>902.1</ele>
        <time>2017-07-30T11:55:22Z</time>
      </trkpt>
      <trkpt lat="42.59918" lon="-0.13051">
        <ele>902.3</ele>
        <time>2017-07-30T11:55:23Z</time>
      </trkpt>
      <trkpt lat="42.59918" lon="-0.13043">
        <ele>902.3</ele>
        <time>2017-07-30T11:55:24Z</time>
      </trkpt>
      <trkpt lat="42.59919" lon="-0.13035">
        <ele>901.9</ele>
        <time>2017-07-30T11:55:25Z</time>
      </trkpt>
      <trkpt lat="42.5992" lon="-0.13029">
        <ele>901.5</ele>
        <time>2017-07-30T11:55:26Z</time>
      </trkpt>
      <trkpt lat="42.5992" lon="-0.13025">
        <ele>901.2</ele>
        <time>2017-07-30T11:55:27Z</time>
      </trkpt>
      <trkpt lat="42.59921" lon="-0.13018">
        <ele>900.7</ele>
        <time>2017-07-30T11:55:29Z</time>
      </trkpt>
      <trkpt lat="42.59921" lon="-0.13012">
        <ele>900.3</ele>
        <time>2017-07-30T11:55:31Z</time>
      </trkpt>
      <trkpt lat="42.59921" lon="-0.13006">
        <ele>900</ele>
        <time>2017-07-30T11:55:33Z</time>
      </trkpt>
      <trkpt lat="42.5992" lon="-0.13">
        <ele>899.9</ele>
        <time>2017-07-30T11:55:35Z</time>
      </trkpt>
      <trkpt lat="42.5992" lon="-0.12992">
        <ele>900</ele>
        <time>2017-07-30T11:55:37Z</time>
      </trkpt>
      <trkpt lat="42.5992" lon="-0.12988">
        <ele>900.1</ele>
        <time>2017-07-30T11:55:38Z</time>
      </trkpt>
      <trkpt lat="42.59921" lon="-0.12985">
        <ele>900.3</ele>
        <time>2017-07-30T11:55:42Z</time>
      </trkpt>
      <trkpt lat="42.59923" lon="-0.12982">
        <ele>902.1</ele>
        <time>2017-07-30T11:55:49Z</time>
      </trkpt>
      <trkpt lat="42.59923" lon="-0.12978">
        <ele>901.8</ele>
        <time>2017-07-30T11:55:54Z</time>
      </trkpt>
      <trkpt lat="42.59923" lon="-0.12974">
        <ele>901.5</ele>
        <time>2017-07-30T11:56:05Z</time>
      </trkpt>
      <trkpt lat="42.59922" lon="-0.12968">
        <ele>901</ele>
        <time>2017-07-30T11:56:07Z</time>
      </trkpt>
      <trkpt lat="42.59921" lon="-0.12964">
        <ele>900.6</ele>
        <time>2017-07-30T11:56:08Z</time>
      </trkpt>
      <trkpt lat="42.5992" lon="-0.1296">
        <ele>900.2</ele>
        <time>2017-07-30T11:56:09Z</time>
      </trkpt>
      <trkpt lat="42.59919" lon="-0.12954">
        <ele>899.7</ele>
        <time>2017-07-30T11:56:10Z</time>
      </trkpt>
      <trkpt lat="42.59916" lon="-0.12949">
        <ele>899.2</ele>
        <time>2017-07-30T11:56:11Z</time>
      </trkpt>
      <trkpt lat="42.59913" lon="-0.12945">
        <ele>898.7</ele>
        <time>2017-07-30T11:56:12Z</time>
      </trkpt>
      <trkpt lat="42.59909" lon="-0.12941">
        <ele>898.1</ele>
        <time>2017-07-30T11:56:13Z</time>
      </trkpt>
      <trkpt lat="42.59904" lon="-0.12939">
        <ele>897.5</ele>
        <time>2017-07-30T11:56:14Z</time>
      </trkpt>
      <trkpt lat="42.59898" lon="-0.12938">
        <ele>896.9</ele>
        <time>2017-07-30T11:56:15Z</time>
      </trkpt>
      <trkpt lat="42.59892" lon="-0.12938">
        <ele>896.3</ele>
        <time>2017-07-30T11:56:16Z</time>
      </trkpt>
      <trkpt lat="42.59886" lon="-0.1294">
        <ele>895.6</ele>
        <time>2017-07-30T11:56:17Z</time>
      </trkpt>
      <trkpt lat="42.5988" lon="-0.12945">
        <ele>894.8</ele>
        <time>2017-07-30T11:56:18Z</time>
      </trkpt>
      <trkpt lat="42.59875" lon="-0.1295">
        <ele>894</ele>
        <time>2017-07-30T11:56:19Z</time>
      </trkpt>
      <trkpt lat="42.59869" lon="-0.12957">
        <ele>894.1</ele>
        <time>2017-07-30T11:56:20Z</time>
      </trkpt>
      <trkpt lat="42.59864" lon="-0.12964">
        <ele>894.2</ele>
        <time>2017-07-30T11:56:21Z</time>
      </trkpt>
      <trkpt lat="42.59859" lon="-0.12971">
        <ele>894.2</ele>
        <time>2017-07-30T11:56:22Z</time>
      </trkpt>
      <trkpt lat="42.59854" lon="-0.12981">
        <ele>894.3</ele>
        <time>2017-07-30T11:56:23Z</time>
      </trkpt>
      <trkpt lat="42.59848" lon="-0.12985">
        <ele>894.4</ele>
        <time>2017-07-30T11:56:24Z</time>
      </trkpt>
      <trkpt lat="42.59842" lon="-0.12991">
        <ele>894.5</ele>
        <time>2017-07-30T11:56:25Z</time>
      </trkpt>
      <trkpt lat="42.59836" lon="-0.12995">
        <ele>894.5</ele>
        <time>2017-07-30T11:56:26Z</time>
      </trkpt>
      <trkpt lat="42.59831" lon="-0.13001">
        <ele>894.6</ele>
        <time>2017-07-30T11:56:27Z</time>
      </trkpt>
      <trkpt lat="42.59828" lon="-0.13004">
        <ele>894.7</ele>
        <time>2017-07-30T11:56:28Z</time>
      </trkpt>
      <trkpt lat="42.59824" lon="-0.13006">
        <ele>894.7</ele>
        <time>2017-07-30T11:56:29Z</time>
      </trkpt>
      <trkpt lat="42.59821" lon="-0.13009">
        <ele>894.8</ele>
        <time>2017-07-30T11:56:30Z</time>
      </trkpt>
      <trkpt lat="42.59817" lon="-0.13012">
        <ele>894.8</ele>
        <time>2017-07-30T11:56:31Z</time>
      </trkpt>
      <trkpt lat="42.59815" lon="-0.13015">
        <ele>894.9</ele>
        <time>2017-07-30T11:56:32Z</time>
      </trkpt>
      <trkpt lat="42.59811" lon="-0.13018">
        <ele>895</ele>
        <time>2017-07-30T11:56:34Z</time>
      </trkpt>
      <trkpt lat="42.59807" lon="-0.13019">
        <ele>895.2</ele>
        <time>2017-07-30T11:56:35Z</time>
      </trkpt>
      <trkpt lat="42.59803" lon="-0.1302">
        <ele>895.5</ele>
        <time>2017-07-30T11:56:36Z</time>
      </trkpt>
      <trkpt lat="42.59799" lon="-0.13023">
        <ele>895.7</ele>
        <time>2017-07-30T11:56:38Z</time>
      </trkpt>
      <trkpt lat="42.59795" lon="-0.13026">
        <ele>896.1</ele>
        <time>2017-07-30T11:56:40Z</time>
      </trkpt>
      <trkpt lat="42.59792" lon="-0.13028">
        <ele>896.7</ele>
        <time>2017-07-30T11:56:42Z</time>
      </trkpt>
      <trkpt lat="42.59789" lon="-0.13031">
        <ele>897.4</ele>
        <time>2017-07-30T11:56:44Z</time>
      </trkpt>
      <trkpt lat="42.59786" lon="-0.13036">
        <ele>898</ele>
        <time>2017-07-30T11:56:46Z</time>
      </trkpt>
      <trkpt lat="42.59784" lon="-0.13042">
        <ele>898.1</ele>
        <time>2017-07-30T11:56:48Z</time>
      </trkpt>
      <trkpt lat="42.59783" lon="-0.13048">
        <ele>898.2</ele>
        <time>2017-07-30T11:56:50Z</time>
      </trkpt>
      <trkpt lat="42.59783" lon="-0.13054">
        <ele>898.3</ele>
        <time>2017-07-30T11:56:52Z</time>
      </trkpt>
      <trkpt lat="42.59784" lon="-0.13059">
        <ele>898.5</ele>
        <time>2017-07-30T11:56:54Z</time>
      </trkpt>
      <trkpt lat="42.59784" lon="-0.13063">
        <ele>898.7</ele>
        <time>2017-07-30T11:56:56Z</time>
      </trkpt>
      <trkpt lat="42.59784" lon="-0.13068">
        <ele>898.8</ele>
        <time>2017-07-30T11:56:58Z</time>
      </trkpt>
      <trkpt lat="42.59784" lon="-0.13072">
        <ele>899</ele>
        <time>2017-07-30T11:57:00Z</time>
      </trkpt>
      <trkpt lat="42.59783" lon="-0.13079">
        <ele>899.3</ele>
        <time>2017-07-30T11:57:02Z</time>
      </trkpt>
      <trkpt lat="42.59782" lon="-0.13085">
        <ele>899.4</ele>
        <time>2017-07-30T11:57:04Z</time>
      </trkpt>
      <trkpt lat="42.59779" lon="-0.13091">
        <ele>899.6</ele>
        <time>2017-07-30T11:57:06Z</time>
      </trkpt>
      <trkpt lat="42.59777" lon="-0.13096">
        <ele>899.7</ele>
        <time>2017-07-30T11:57:08Z</time>
      </trkpt>
      <trkpt lat="42.59775" lon="-0.131">
        <ele>899.8</ele>
        <time>2017-07-30T11:57:10Z</time>
      </trkpt>
      <trkpt lat="42.59773" lon="-0.13103">
        <ele>899.9</ele>
        <time>2017-07-30T11:57:12Z</time>
      </trkpt>
      <trkpt lat="42.59769" lon="-0.13104">
        <ele>900.1</ele>
        <time>2017-07-30T11:57:14Z</time>
      </trkpt>
      <trkpt lat="42.59765" lon="-0.13104">
        <ele>900.3</ele>
        <time>2017-07-30T11:57:16Z</time>
      </trkpt>
      <trkpt lat="42.59762" lon="-0.13104">
        <ele>900.5</ele>
        <time>2017-07-30T11:57:18Z</time>
      </trkpt>
      <trkpt lat="42.59759" lon="-0.13105">
        <ele>900.7</ele>
        <time>2017-07-30T11:57:21Z</time>
      </trkpt>
      <trkpt lat="42.59755" lon="-0.13107">
        <ele>900.9</ele>
        <time>2017-07-30T11:57:24Z</time>
      </trkpt>
      <trkpt lat="42.59752" lon="-0.13107">
        <ele>900.9</ele>
        <time>2017-07-30T11:57:26Z</time>
      </trkpt>
      <trkpt lat="42.59748" lon="-0.13107">
        <ele>900.9</ele>
        <time>2017-07-30T11:57:28Z</time>
      </trkpt>
      <trkpt lat="42.59744" lon="-0.13108">
        <ele>900.9</ele>
        <time>2017-07-30T11:57:30Z</time>
      </trkpt>
      <trkpt lat="42.5974" lon="-0.13108">
        <ele>900.9</ele>
        <time>2017-07-30T11:57:32Z</time>
      </trkpt>
      <trkpt lat="42.59737" lon="-0.13108">
        <ele>901</ele>
        <time>2017-07-30T11:57:34Z</time>
      </trkpt>
      <trkpt lat="42.59734" lon="-0.13108">
        <ele>901</ele>
        <time>2017-07-30T11:57:36Z</time>
      </trkpt>
      <trkpt lat="42.5973" lon="-0.13108">
        <ele>901.3</ele>
        <time>2017-07-30T11:57:38Z</time>
      </trkpt>
      <trkpt lat="42.59727" lon="-0.13107">
        <ele>901.3</ele>
        <time>2017-07-30T11:57:40Z</time>
      </trkpt>
      <trkpt lat="42.59724" lon="-0.13105">
        <ele>901.4</ele>
        <time>2017-07-30T11:57:43Z</time>
      </trkpt>
      <trkpt lat="42.59727" lon="-0.13104">
        <ele>901.3</ele>
        <time>2017-07-30T11:58:32Z</time>
      </trkpt>
      <trkpt lat="42.59731" lon="-0.13102">
        <ele>901.2</ele>
        <time>2017-07-30T11:58:34Z</time>
      </trkpt>
      <trkpt lat="42.59734" lon="-0.13102">
        <ele>901.1</ele>
        <time>2017-07-30T11:58:35Z</time>
      </trkpt>
      <trkpt lat="42.59737" lon="-0.13103">
        <ele>901</ele>
        <time>2017-07-30T11:58:36Z</time>
      </trkpt>
      <trkpt lat="42.5974" lon="-0.13103">
        <ele>900.9</ele>
        <time>2017-07-30T11:58:37Z</time>
      </trkpt>
      <trkpt lat="42.59743" lon="-0.13103">
        <ele>900.8</ele>
        <time>2017-07-30T11:58:38Z</time>
      </trkpt>
      <trkpt lat="42.59746" lon="-0.13104">
        <ele>900.9</ele>
        <time>2017-07-30T11:58:39Z</time>
      </trkpt>
      <trkpt lat="42.59749" lon="-0.13104">
        <ele>900.9</ele>
        <time>2017-07-30T11:58:40Z</time>
      </trkpt>
      <trkpt lat="42.59752" lon="-0.13104">
        <ele>900.9</ele>
        <time>2017-07-30T11:58:41Z</time>
      </trkpt>
      <trkpt lat="42.59757" lon="-0.13105">
        <ele>900.8</ele>
        <time>2017-07-30T11:58:43Z</time>
      </trkpt>
      <trkpt lat="42.59762" lon="-0.13106">
        <ele>900.6</ele>
        <time>2017-07-30T11:58:45Z</time>
      </trkpt>
      <trkpt lat="42.59764" lon="-0.13105">
        <ele>900.5</ele>
        <time>2017-07-30T11:58:46Z</time>
      </trkpt>
      <trkpt lat="42.59767" lon="-0.13103">
        <ele>900.4</ele>
        <time>2017-07-30T11:58:47Z</time>
      </trkpt>
      <trkpt lat="42.5977" lon="-0.13101">
        <ele>900.2</ele>
        <time>2017-07-30T11:58:48Z</time>
      </trkpt>
      <trkpt lat="42.59772" lon="-0.13097">
        <ele>900</ele>
        <time>2017-07-30T11:58:49Z</time>
      </trkpt>
      <trkpt lat="42.59774" lon="-0.13094">
        <ele>899.9</ele>
        <time>2017-07-30T11:58:50Z</time>
      </trkpt>
      <trkpt lat="42.59776" lon="-0.13089">
        <ele>899.8</ele>
        <time>2017-07-30T11:58:51Z</time>
      </trkpt>
      <trkpt lat="42.59777" lon="-0.13084">
        <ele>899.7</ele>
        <time>2017-07-30T11:58:52Z</time>
      </trkpt>
      <trkpt lat="42.59778" lon="-0.13078">
        <ele>899.6</ele>
        <time>2017-07-30T11:58:53Z</time>
      </trkpt>
      <trkpt lat="42.59779" lon="-0.13072">
        <ele>899.5</ele>
        <time>2017-07-30T11:58:54Z</time>
      </trkpt>
      <trkpt lat="42.59779" lon="-0.13065">
        <ele>899.4</ele>
        <time>2017-07-30T11:58:55Z</time>
      </trkpt>
      <trkpt lat="42.59779" lon="-0.1306">
        <ele>899.3</ele>
        <time>2017-07-30T11:58:56Z</time>
      </trkpt>
      <trkpt lat="42.59779" lon="-0.13055">
        <ele>899.2</ele>
        <time>2017-07-30T11:58:57Z</time>
      </trkpt>
      <trkpt lat="42.59779" lon="-0.13051">
        <ele>899</ele>
        <time>2017-07-30T11:58:58Z</time>
      </trkpt>
      <trkpt lat="42.59779" lon="-0.13046">
        <ele>898.9</ele>
        <time>2017-07-30T11:58:59Z</time>
      </trkpt>
      <trkpt lat="42.59779" lon="-0.13042">
        <ele>898.7</ele>
        <time>2017-07-30T11:59:00Z</time>
      </trkpt>
      <trkpt lat="42.59779" lon="-0.13036">
        <ele>898.5</ele>
        <time>2017-07-30T11:59:02Z</time>
      </trkpt>
      <trkpt lat="42.59778" lon="-0.13032">
        <ele>898.4</ele>
        <time>2017-07-30T11:59:04Z</time>
      </trkpt>
      <trkpt lat="42.59776" lon="-0.13027">
        <ele>898.3</ele>
        <time>2017-07-30T11:59:08Z</time>
      </trkpt>
      <trkpt lat="42.59774" lon="-0.13023">
        <ele>898.2</ele>
        <time>2017-07-30T11:59:10Z</time>
      </trkpt>
      <trkpt lat="42.59776" lon="-0.1302">
        <ele>898.2</ele>
        <time>2017-07-30T11:59:12Z</time>
      </trkpt>
      <trkpt lat="42.59779" lon="-0.13019">
        <ele>898.1</ele>
        <time>2017-07-30T11:59:14Z</time>
      </trkpt>
      <trkpt lat="42.59782" lon="-0.13021">
        <ele>898.1</ele>
        <time>2017-07-30T11:59:16Z</time>
      </trkpt>
      <trkpt lat="42.59785" lon="-0.13023">
        <ele>898</ele>
        <time>2017-07-30T11:59:18Z</time>
      </trkpt>
      <trkpt lat="42.59788" lon="-0.13026">
        <ele>898</ele>
        <time>2017-07-30T11:59:21Z</time>
      </trkpt>
      <trkpt lat="42.59788" lon="-0.1303">
        <ele>897.4</ele>
        <time>2017-07-30T11:59:24Z</time>
      </trkpt>
      <trkpt lat="42.59787" lon="-0.13023">
        <ele>896.5</ele>
        <time>2017-07-30T11:59:55Z</time>
      </trkpt>
      <trkpt lat="42.59792" lon="-0.13023">
        <ele>895.9</ele>
        <time>2017-07-30T11:59:57Z</time>
      </trkpt>
      <trkpt lat="42.59795" lon="-0.13022">
        <ele>895.7</ele>
        <time>2017-07-30T11:59:58Z</time>
      </trkpt>
      <trkpt lat="42.59799" lon="-0.13021">
        <ele>895.5</ele>
        <time>2017-07-30T11:59:59Z</time>
      </trkpt>
      <trkpt lat="42.59802" lon="-0.13018">
        <ele>895.3</ele>
        <time>2017-07-30T12:00:00Z</time>
      </trkpt>
      <trkpt lat="42.59806" lon="-0.13016">
        <ele>895.1</ele>
        <time>2017-07-30T12:00:01Z</time>
      </trkpt>
      <trkpt lat="42.59809" lon="-0.13013">
        <ele>894.9</ele>
        <time>2017-07-30T12:00:02Z</time>
      </trkpt>
      <trkpt lat="42.59812" lon="-0.13011">
        <ele>894.8</ele>
        <time>2017-07-30T12:00:03Z</time>
      </trkpt>
      <trkpt lat="42.59816" lon="-0.13008">
        <ele>894.8</ele>
        <time>2017-07-30T12:00:04Z</time>
      </trkpt>
      <trkpt lat="42.59819" lon="-0.13006">
        <ele>894.7</ele>
        <time>2017-07-30T12:00:05Z</time>
      </trkpt>
      <trkpt lat="42.59822" lon="-0.13004">
        <ele>894.7</ele>
        <time>2017-07-30T12:00:06Z</time>
      </trkpt>
      <trkpt lat="42.59826" lon="-0.13001">
        <ele>894.6</ele>
        <time>2017-07-30T12:00:07Z</time>
      </trkpt>
      <trkpt lat="42.59829" lon="-0.12999">
        <ele>894.6</ele>
        <time>2017-07-30T12:00:08Z</time>
      </trkpt>
      <trkpt lat="42.59832" lon="-0.12997">
        <ele>894.5</ele>
        <time>2017-07-30T12:00:09Z</time>
      </trkpt>
      <trkpt lat="42.59836" lon="-0.12994">
        <ele>894.5</ele>
        <time>2017-07-30T12:00:10Z</time>
      </trkpt>
      <trkpt lat="42.59839" lon="-0.12992">
        <ele>894.5</ele>
        <time>2017-07-30T12:00:11Z</time>
      </trkpt>
      <trkpt lat="42.59842" lon="-0.1299">
        <ele>894.4</ele>
        <time>2017-07-30T12:00:12Z</time>
      </trkpt>
      <trkpt lat="42.59845" lon="-0.12987">
        <ele>894.4</ele>
        <time>2017-07-30T12:00:13Z</time>
      </trkpt>
      <trkpt lat="42.59848" lon="-0.12984">
        <ele>894.4</ele>
        <time>2017-07-30T12:00:14Z</time>
      </trkpt>
      <trkpt lat="42.5985" lon="-0.12982">
        <ele>894.3</ele>
        <time>2017-07-30T12:00:15Z</time>
      </trkpt>
      <trkpt lat="42.59853" lon="-0.12979">
        <ele>894.3</ele>
        <time>2017-07-30T12:00:16Z</time>
      </trkpt>
      <trkpt lat="42.59855" lon="-0.12976">
        <ele>894.3</ele>
        <time>2017-07-30T12:00:17Z</time>
      </trkpt>
      <trkpt lat="42.59858" lon="-0.12973">
        <ele>894.2</ele>
        <time>2017-07-30T12:00:18Z</time>
      </trkpt>
      <trkpt lat="42.5986" lon="-0.1297">
        <ele>894.2</ele>
        <time>2017-07-30T12:00:19Z</time>
      </trkpt>
      <trkpt lat="42.59862" lon="-0.12967">
        <ele>894.2</ele>
        <time>2017-07-30T12:00:20Z</time>
      </trkpt>
      <trkpt lat="42.59865" lon="-0.12965">
        <ele>894.2</ele>
        <time>2017-07-30T12:00:21Z</time>
      </trkpt>
      <trkpt lat="42.59868" lon="-0.1296">
        <ele>894.1</ele>
        <time>2017-07-30T12:00:23Z</time>
      </trkpt>
      <trkpt lat="42.59872" lon="-0.12956">
        <ele>894.1</ele>
        <time>2017-07-30T12:00:25Z</time>
      </trkpt>
      <trkpt lat="42.59876" lon="-0.12953">
        <ele>894</ele>
        <time>2017-07-30T12:00:27Z</time>
      </trkpt>
      <trkpt lat="42.5988" lon="-0.12948">
        <ele>894.6</ele>
        <time>2017-07-30T12:00:29Z</time>
      </trkpt>
      <trkpt lat="42.59882" lon="-0.12945">
        <ele>894.9</ele>
        <time>2017-07-30T12:00:30Z</time>
      </trkpt>
      <trkpt lat="42.59885" lon="-0.12943">
        <ele>895.3</ele>
        <time>2017-07-30T12:00:31Z</time>
      </trkpt>
      <trkpt lat="42.59887" lon="-0.12941">
        <ele>895.6</ele>
        <time>2017-07-30T12:00:32Z</time>
      </trkpt>
      <trkpt lat="42.5989" lon="-0.12939">
        <ele>896</ele>
        <time>2017-07-30T12:00:33Z</time>
      </trkpt>
      <trkpt lat="42.59893" lon="-0.12938">
        <ele>896.3</ele>
        <time>2017-07-30T12:00:34Z</time>
      </trkpt>
      <trkpt lat="42.59896" lon="-0.12937">
        <ele>896.7</ele>
        <time>2017-07-30T12:00:35Z</time>
      </trkpt>
      <trkpt lat="42.59899" lon="-0.12936">
        <ele>897</ele>
        <time>2017-07-30T12:00:36Z</time>
      </trkpt>
      <trkpt lat="42.59902" lon="-0.12937">
        <ele>897.3</ele>
        <time>2017-07-30T12:00:37Z</time>
      </trkpt>
      <trkpt lat="42.59905" lon="-0.12938">
        <ele>897.7</ele>
        <time>2017-07-30T12:00:38Z</time>
      </trkpt>
      <trkpt lat="42.59908" lon="-0.12939">
        <ele>898</ele>
        <time>2017-07-30T12:00:39Z</time>
      </trkpt>
      <trkpt lat="42.5991" lon="-0.1294">
        <ele>898.4</ele>
        <time>2017-07-30T12:00:40Z</time>
      </trkpt>
      <trkpt lat="42.59913" lon="-0.12942">
        <ele>898.7</ele>
        <time>2017-07-30T12:00:41Z</time>
      </trkpt>
      <trkpt lat="42.59915" lon="-0.12945">
        <ele>899.1</ele>
        <time>2017-07-30T12:00:42Z</time>
      </trkpt>
      <trkpt lat="42.59917" lon="-0.12949">
        <ele>899.5</ele>
        <time>2017-07-30T12:00:43Z</time>
      </trkpt>
      <trkpt lat="42.59918" lon="-0.12953">
        <ele>899.8</ele>
        <time>2017-07-30T12:00:44Z</time>
      </trkpt>
      <trkpt lat="42.59919" lon="-0.12957">
        <ele>900.2</ele>
        <time>2017-07-30T12:00:45Z</time>
      </trkpt>
      <trkpt lat="42.59921" lon="-0.12961">
        <ele>900.6</ele>
        <time>2017-07-30T12:00:46Z</time>
      </trkpt>
      <trkpt lat="42.59922" lon="-0.12965">
        <ele>901</ele>
        <time>2017-07-30T12:00:47Z</time>
      </trkpt>
      <trkpt lat="42.59923" lon="-0.12969">
        <ele>901.3</ele>
        <time>2017-07-30T12:00:48Z</time>
      </trkpt>
      <trkpt lat="42.59925" lon="-0.12972">
        <ele>901.6</ele>
        <time>2017-07-30T12:00:49Z</time>
      </trkpt>
      <trkpt lat="42.59928" lon="-0.12978">
        <ele>902.3</ele>
        <time>2017-07-30T12:00:51Z</time>
      </trkpt>
      <trkpt lat="42.5993" lon="-0.1298">
        <ele>902.6</ele>
        <time>2017-07-30T12:00:52Z</time>
      </trkpt>
      <trkpt lat="42.59933" lon="-0.12981">
        <ele>903</ele>
        <time>2017-07-30T12:00:53Z</time>
      </trkpt>
      <trkpt lat="42.59936" lon="-0.12981">
        <ele>903.3</ele>
        <time>2017-07-30T12:00:54Z</time>
      </trkpt>
      <trkpt lat="42.59938" lon="-0.12979">
        <ele>903.6</ele>
        <time>2017-07-30T12:00:55Z</time>
      </trkpt>
      <trkpt lat="42.59941" lon="-0.12976">
        <ele>904</ele>
        <time>2017-07-30T12:00:56Z</time>
      </trkpt>
      <trkpt lat="42.59943" lon="-0.12973">
        <ele>904</ele>
        <time>2017-07-30T12:00:57Z</time>
      </trkpt>
      <trkpt lat="42.59944" lon="-0.12968">
        <ele>904</ele>
        <time>2017-07-30T12:00:58Z</time>
      </trkpt>
      <trkpt lat="42.59944" lon="-0.12964">
        <ele>904</ele>
        <time>2017-07-30T12:00:59Z</time>
      </trkpt>
      <trkpt lat="42.59942" lon="-0.12959">
        <ele>904</ele>
        <time>2017-07-30T12:01:00Z</time>
      </trkpt>
      <trkpt lat="42.59941" lon="-0.12955">
        <ele>904</ele>
        <time>2017-07-30T12:01:01Z</time>
      </trkpt>
      <trkpt lat="42.59939" lon="-0.12951">
        <ele>904</ele>
        <time>2017-07-30T12:01:02Z</time>
      </trkpt>
      <trkpt lat="42.59938" lon="-0.12948">
        <ele>904</ele>
        <time>2017-07-30T12:01:03Z</time>
      </trkpt>
      <trkpt lat="42.59936" lon="-0.12944">
        <ele>904</ele>
        <time>2017-07-30T12:01:04Z</time>
      </trkpt>
      <trkpt lat="42.59935" lon="-0.12941">
        <ele>904</ele>
        <time>2017-07-30T12:01:05Z</time>
      </trkpt>
      <trkpt lat="42.59934" lon="-0.12938">
        <ele>904</ele>
        <time>2017-07-30T12:01:06Z</time>
      </trkpt>
      <trkpt lat="42.59932" lon="-0.12934">
        <ele>904</ele>
        <time>2017-07-30T12:01:07Z</time>
      </trkpt>
      <trkpt lat="42.59931" lon="-0.12931">
        <ele>904</ele>
        <time>2017-07-30T12:01:08Z</time>
      </trkpt>
      <trkpt lat="42.5993" lon="-0.12927">
        <ele>904</ele>
        <time>2017-07-30T12:01:09Z</time>
      </trkpt>
      <trkpt lat="42.59929" lon="-0.12924">
        <ele>904</ele>
        <time>2017-07-30T12:01:10Z</time>
      </trkpt>
      <trkpt lat="42.59928" lon="-0.1292">
        <ele>904.3</ele>
        <time>2017-07-30T12:01:11Z</time>
      </trkpt>
      <trkpt lat="42.59927" lon="-0.12917">
        <ele>905.3</ele>
        <time>2017-07-30T12:01:12Z</time>
      </trkpt>
      <trkpt lat="42.59926" lon="-0.1291">
        <ele>907.2</ele>
        <time>2017-07-30T12:01:14Z</time>
      </trkpt>
      <trkpt lat="42.59924" lon="-0.12903">
        <ele>907.3</ele>
        <time>2017-07-30T12:01:16Z</time>
      </trkpt>
      <trkpt lat="42.59922" lon="-0.12897">
        <ele>906.3</ele>
        <time>2017-07-30T12:01:18Z</time>
      </trkpt>
      <trkpt lat="42.5992" lon="-0.1289">
        <ele>905.3</ele>
        <time>2017-07-30T12:01:20Z</time>
      </trkpt>
      <trkpt lat="42.59917" lon="-0.12884">
        <ele>904.3</ele>
        <time>2017-07-30T12:01:22Z</time>
      </trkpt>
      <trkpt lat="42.59915" lon="-0.12878">
        <ele>903.3</ele>
        <time>2017-07-30T12:01:24Z</time>
      </trkpt>
      <trkpt lat="42.59913" lon="-0.12875">
        <ele>902.8</ele>
        <time>2017-07-30T12:01:25Z</time>
      </trkpt>
      <trkpt lat="42.59911" lon="-0.12872">
        <ele>902.2</ele>
        <time>2017-07-30T12:01:26Z</time>
      </trkpt>
      <trkpt lat="42.59908" lon="-0.12867">
        <ele>901.3</ele>
        <time>2017-07-30T12:01:28Z</time>
      </trkpt>
      <trkpt lat="42.59903" lon="-0.12866">
        <ele>901</ele>
        <time>2017-07-30T12:01:30Z</time>
      </trkpt>
      <trkpt lat="42.599" lon="-0.12866">
        <ele>901</ele>
        <time>2017-07-30T12:01:31Z</time>
      </trkpt>
      <trkpt lat="42.59896" lon="-0.12867">
        <ele>901</ele>
        <time>2017-07-30T12:01:32Z</time>
      </trkpt>
      <trkpt lat="42.59893" lon="-0.12868">
        <ele>901</ele>
        <time>2017-07-30T12:01:33Z</time>
      </trkpt>
      <trkpt lat="42.5989" lon="-0.12868">
        <ele>901</ele>
        <time>2017-07-30T12:01:34Z</time>
      </trkpt>
      <trkpt lat="42.59885" lon="-0.12866">
        <ele>901</ele>
        <time>2017-07-30T12:01:36Z</time>
      </trkpt>
      <trkpt lat="42.59883" lon="-0.12863">
        <ele>901</ele>
        <time>2017-07-30T12:01:37Z</time>
      </trkpt>
      <trkpt lat="42.59881" lon="-0.1286">
        <ele>901</ele>
        <time>2017-07-30T12:01:38Z</time>
      </trkpt>
      <trkpt lat="42.59878" lon="-0.12854">
        <ele>901</ele>
        <time>2017-07-30T12:01:40Z</time>
      </trkpt>
      <trkpt lat="42.59875" lon="-0.12848">
        <ele>901</ele>
        <time>2017-07-30T12:01:42Z</time>
      </trkpt>
      <trkpt lat="42.59873" lon="-0.12844">
        <ele>901</ele>
        <time>2017-07-30T12:01:44Z</time>
      </trkpt>
      <trkpt lat="42.59871" lon="-0.12839">
        <ele>901</ele>
        <time>2017-07-30T12:01:46Z</time>
      </trkpt>
      <trkpt lat="42.59871" lon="-0.12834">
        <ele>901</ele>
        <time>2017-07-30T12:01:48Z</time>
      </trkpt>
      <trkpt lat="42.59871" lon="-0.12828">
        <ele>903</ele>
        <time>2017-07-30T12:01:50Z</time>
      </trkpt>
      <trkpt lat="42.5987" lon="-0.12824">
        <ele>904.4</ele>
        <time>2017-07-30T12:01:52Z</time>
      </trkpt>
      <trkpt lat="42.59871" lon="-0.12819">
        <ele>906.3</ele>
        <time>2017-07-30T12:01:55Z</time>
      </trkpt>
      <trkpt lat="42.59871" lon="-0.12814">
        <ele>908</ele>
        <time>2017-07-30T12:01:57Z</time>
      </trkpt>
      <trkpt lat="42.5987" lon="-0.1281">
        <ele>909.5</ele>
        <time>2017-07-30T12:01:58Z</time>
      </trkpt>
      <trkpt lat="42.59869" lon="-0.12806">
        <ele>911</ele>
        <time>2017-07-30T12:01:59Z</time>
      </trkpt>
      <trkpt lat="42.59868" lon="-0.12802">
        <ele>911</ele>
        <time>2017-07-30T12:02:00Z</time>
      </trkpt>
      <trkpt lat="42.59866" lon="-0.12797">
        <ele>911</ele>
        <time>2017-07-30T12:02:01Z</time>
      </trkpt>
      <trkpt lat="42.59863" lon="-0.12793">
        <ele>911</ele>
        <time>2017-07-30T12:02:02Z</time>
      </trkpt>
      <trkpt lat="42.5986" lon="-0.12788">
        <ele>911</ele>
        <time>2017-07-30T12:02:03Z</time>
      </trkpt>
      <trkpt lat="42.59858" lon="-0.12783">
        <ele>911</ele>
        <time>2017-07-30T12:02:04Z</time>
      </trkpt>
      <trkpt lat="42.59859" lon="-0.12772">
        <ele>910.7</ele>
        <time>2017-07-30T12:02:05Z</time>
      </trkpt>
      <trkpt lat="42.59859" lon="-0.12762">
        <ele>910.4</ele>
        <time>2017-07-30T12:02:06Z</time>
      </trkpt>
      <trkpt lat="42.59859" lon="-0.12754">
        <ele>910.2</ele>
        <time>2017-07-30T12:02:07Z</time>
      </trkpt>
      <trkpt lat="42.5986" lon="-0.12746">
        <ele>910.1</ele>
        <time>2017-07-30T12:02:08Z</time>
      </trkpt>
      <trkpt lat="42.59861" lon="-0.12739">
        <ele>909.9</ele>
        <time>2017-07-30T12:02:09Z</time>
      </trkpt>
      <trkpt lat="42.59861" lon="-0.12736">
        <ele>909.8</ele>
        <time>2017-07-30T12:02:10Z</time>
      </trkpt>
      <trkpt lat="42.59859" lon="-0.12727">
        <ele>909.6</ele>
        <time>2017-07-30T12:02:12Z</time>
      </trkpt>
      <trkpt lat="42.59862" lon="-0.1272">
        <ele>909.4</ele>
        <time>2017-07-30T12:02:13Z</time>
      </trkpt>
      <trkpt lat="42.59867" lon="-0.12714">
        <ele>909</ele>
        <time>2017-07-30T12:02:14Z</time>
      </trkpt>
      <trkpt lat="42.59871" lon="-0.12709">
        <ele>909</ele>
        <time>2017-07-30T12:02:15Z</time>
      </trkpt>
      <trkpt lat="42.59876" lon="-0.12705">
        <ele>909</ele>
        <time>2017-07-30T12:02:16Z</time>
      </trkpt>
      <trkpt lat="42.59882" lon="-0.127">
        <ele>909.1</ele>
        <time>2017-07-30T12:02:17Z</time>
      </trkpt>
      <trkpt lat="42.59888" lon="-0.12696">
        <ele>909.4</ele>
        <time>2017-07-30T12:02:18Z</time>
      </trkpt>
      <trkpt lat="42.59894" lon="-0.12692">
        <ele>909.7</ele>
        <time>2017-07-30T12:02:19Z</time>
      </trkpt>
      <trkpt lat="42.599" lon="-0.12687">
        <ele>909.9</ele>
        <time>2017-07-30T12:02:20Z</time>
      </trkpt>
      <trkpt lat="42.59907" lon="-0.12683">
        <ele>910.1</ele>
        <time>2017-07-30T12:02:21Z</time>
      </trkpt>
      <trkpt lat="42.59913" lon="-0.1268">
        <ele>910.3</ele>
        <time>2017-07-30T12:02:22Z</time>
      </trkpt>
      <trkpt lat="42.5992" lon="-0.1268">
        <ele>910.5</ele>
        <time>2017-07-30T12:02:23Z</time>
      </trkpt>
      <trkpt lat="42.59926" lon="-0.12682">
        <ele>910.7</ele>
        <time>2017-07-30T12:02:24Z</time>
      </trkpt>
      <trkpt lat="42.59932" lon="-0.12685">
        <ele>910.9</ele>
        <time>2017-07-30T12:02:25Z</time>
      </trkpt>
      <trkpt lat="42.59938" lon="-0.12688">
        <ele>911.2</ele>
        <time>2017-07-30T12:02:26Z</time>
      </trkpt>
      <trkpt lat="42.59944" lon="-0.12692">
        <ele>911.6</ele>
        <time>2017-07-30T12:02:27Z</time>
      </trkpt>
      <trkpt lat="42.5995" lon="-0.12696">
        <ele>911.9</ele>
        <time>2017-07-30T12:02:28Z</time>
      </trkpt>
      <trkpt lat="42.59955" lon="-0.12699">
        <ele>912.2</ele>
        <time>2017-07-30T12:02:29Z</time>
      </trkpt>
      <trkpt lat="42.59961" lon="-0.12699">
        <ele>912.7</ele>
        <time>2017-07-30T12:02:30Z</time>
      </trkpt>
      <trkpt lat="42.59966" lon="-0.12698">
        <ele>913</ele>
        <time>2017-07-30T12:02:31Z</time>
      </trkpt>
      <trkpt lat="42.5997" lon="-0.12698">
        <ele>913.4</ele>
        <time>2017-07-30T12:02:32Z</time>
      </trkpt>
      <trkpt lat="42.59975" lon="-0.12695">
        <ele>914</ele>
        <time>2017-07-30T12:02:33Z</time>
      </trkpt>
      <trkpt lat="42.5998" lon="-0.12692">
        <ele>914.6</ele>
        <time>2017-07-30T12:02:34Z</time>
      </trkpt>
      <trkpt lat="42.59983" lon="-0.12689">
        <ele>914.9</ele>
        <time>2017-07-30T12:02:35Z</time>
      </trkpt>
      <trkpt lat="42.59986" lon="-0.12687">
        <ele>915.3</ele>
        <time>2017-07-30T12:02:36Z</time>
      </trkpt>
      <trkpt lat="42.5999" lon="-0.12684">
        <ele>915.8</ele>
        <time>2017-07-30T12:02:37Z</time>
      </trkpt>
      <trkpt lat="42.59993" lon="-0.12681">
        <ele>916.1</ele>
        <time>2017-07-30T12:02:38Z</time>
      </trkpt>
      <trkpt lat="42.59995" lon="-0.12678">
        <ele>916.4</ele>
        <time>2017-07-30T12:02:39Z</time>
      </trkpt>
      <trkpt lat="42.59998" lon="-0.12675">
        <ele>916.7</ele>
        <time>2017-07-30T12:02:40Z</time>
      </trkpt>
      <trkpt lat="42.6" lon="-0.12673">
        <ele>916.9</ele>
        <time>2017-07-30T12:02:41Z</time>
      </trkpt>
      <trkpt lat="42.60004" lon="-0.12672">
        <ele>917.3</ele>
        <time>2017-07-30T12:02:42Z</time>
      </trkpt>
      <trkpt lat="42.60007" lon="-0.12671">
        <ele>917.7</ele>
        <time>2017-07-30T12:02:43Z</time>
      </trkpt>
      <trkpt lat="42.60011" lon="-0.12672">
        <ele>918.1</ele>
        <time>2017-07-30T12:02:44Z</time>
      </trkpt>
      <trkpt lat="42.60015" lon="-0.12673">
        <ele>918.6</ele>
        <time>2017-07-30T12:02:45Z</time>
      </trkpt>
      <trkpt lat="42.60019" lon="-0.12673">
        <ele>919.5</ele>
        <time>2017-07-30T12:02:46Z</time>
      </trkpt>
      <trkpt lat="42.60023" lon="-0.12674">
        <ele>920</ele>
        <time>2017-07-30T12:02:47Z</time>
      </trkpt>
      <trkpt lat="42.60027" lon="-0.12675">
        <ele>920.4</ele>
        <time>2017-07-30T12:02:48Z</time>
      </trkpt>
      <trkpt lat="42.6003" lon="-0.12675">
        <ele>920.9</ele>
        <time>2017-07-30T12:02:49Z</time>
      </trkpt>
      <trkpt lat="42.60034" lon="-0.12676">
        <ele>921.3</ele>
        <time>2017-07-30T12:02:50Z</time>
      </trkpt>
      <trkpt lat="42.60038" lon="-0.12676">
        <ele>921.5</ele>
        <time>2017-07-30T12:02:51Z</time>
      </trkpt>
      <trkpt lat="42.60042" lon="-0.12677">
        <ele>921.8</ele>
        <time>2017-07-30T12:02:52Z</time>
      </trkpt>
      <trkpt lat="42.60046" lon="-0.12677">
        <ele>922</ele>
        <time>2017-07-30T12:02:53Z</time>
      </trkpt>
      <trkpt lat="42.60049" lon="-0.12677">
        <ele>921.6</ele>
        <time>2017-07-30T12:02:54Z</time>
      </trkpt>
      <trkpt lat="42.60053" lon="-0.12676">
        <ele>921.2</ele>
        <time>2017-07-30T12:02:55Z</time>
      </trkpt>
      <trkpt lat="42.60056" lon="-0.12674">
        <ele>920.8</ele>
        <time>2017-07-30T12:02:56Z</time>
      </trkpt>
      <trkpt lat="42.60059" lon="-0.12672">
        <ele>920.4</ele>
        <time>2017-07-30T12:02:57Z</time>
      </trkpt>
      <trkpt lat="42.60062" lon="-0.12668">
        <ele>920</ele>
        <time>2017-07-30T12:02:58Z</time>
      </trkpt>
      <trkpt lat="42.60065" lon="-0.12664">
        <ele>919.6</ele>
        <time>2017-07-30T12:02:59Z</time>
      </trkpt>
      <trkpt lat="42.60067" lon="-0.1266">
        <ele>919.2</ele>
        <time>2017-07-30T12:03:00Z</time>
      </trkpt>
      <trkpt lat="42.6007" lon="-0.12655">
        <ele>918.7</ele>
        <time>2017-07-30T12:03:01Z</time>
      </trkpt>
      <trkpt lat="42.60072" lon="-0.1265">
        <ele>918.3</ele>
        <time>2017-07-30T12:03:02Z</time>
      </trkpt>
      <trkpt lat="42.60074" lon="-0.12645">
        <ele>918</ele>
        <time>2017-07-30T12:03:03Z</time>
      </trkpt>
      <trkpt lat="42.60075" lon="-0.1264">
        <ele>917.6</ele>
        <time>2017-07-30T12:03:04Z</time>
      </trkpt>
      <trkpt lat="42.60077" lon="-0.12636">
        <ele>917.3</ele>
        <time>2017-07-30T12:03:05Z</time>
      </trkpt>
      <trkpt lat="42.60078" lon="-0.12631">
        <ele>916.9</ele>
        <time>2017-07-30T12:03:06Z</time>
      </trkpt>
      <trkpt lat="42.60078" lon="-0.12623">
        <ele>916.4</ele>
        <time>2017-07-30T12:03:07Z</time>
      </trkpt>
      <trkpt lat="42.60078" lon="-0.12616">
        <ele>916</ele>
        <time>2017-07-30T12:03:08Z</time>
      </trkpt>
      <trkpt lat="42.60079" lon="-0.12608">
        <ele>915.6</ele>
        <time>2017-07-30T12:03:09Z</time>
      </trkpt>
      <trkpt lat="42.6008" lon="-0.12601">
        <ele>915.3</ele>
        <time>2017-07-30T12:03:10Z</time>
      </trkpt>
      <trkpt lat="42.60083" lon="-0.12592">
        <ele>915</ele>
        <time>2017-07-30T12:03:11Z</time>
      </trkpt>
      <trkpt lat="42.60084" lon="-0.12585">
        <ele>914.7</ele>
        <time>2017-07-30T12:03:12Z</time>
      </trkpt>
      <trkpt lat="42.60086" lon="-0.12577">
        <ele>914.4</ele>
        <time>2017-07-30T12:03:13Z</time>
      </trkpt>
      <trkpt lat="42.60088" lon="-0.1257">
        <ele>914</ele>
        <time>2017-07-30T12:03:14Z</time>
      </trkpt>
      <trkpt lat="42.6009" lon="-0.12563">
        <ele>913.7</ele>
        <time>2017-07-30T12:03:15Z</time>
      </trkpt>
      <trkpt lat="42.60091" lon="-0.12557">
        <ele>913.4</ele>
        <time>2017-07-30T12:03:16Z</time>
      </trkpt>
      <trkpt lat="42.60092" lon="-0.1255">
        <ele>913.1</ele>
        <time>2017-07-30T12:03:17Z</time>
      </trkpt>
      <trkpt lat="42.60093" lon="-0.12543">
        <ele>912.8</ele>
        <time>2017-07-30T12:03:18Z</time>
      </trkpt>
      <trkpt lat="42.60095" lon="-0.12536">
        <ele>912.5</ele>
        <time>2017-07-30T12:03:19Z</time>
      </trkpt>
      <trkpt lat="42.60097" lon="-0.12529">
        <ele>912.2</ele>
        <time>2017-07-30T12:03:20Z</time>
      </trkpt>
      <trkpt lat="42.601" lon="-0.12522">
        <ele>911.9</ele>
        <time>2017-07-30T12:03:21Z</time>
      </trkpt>
      <trkpt lat="42.60101" lon="-0.12515">
        <ele>911.7</ele>
        <time>2017-07-30T12:03:22Z</time>
      </trkpt>
      <trkpt lat="42.60103" lon="-0.12507">
        <ele>911.5</ele>
        <time>2017-07-30T12:03:23Z</time>
      </trkpt>
      <trkpt lat="42.60104" lon="-0.12499">
        <ele>911.4</ele>
        <time>2017-07-30T12:03:24Z</time>
      </trkpt>
      <trkpt lat="42.60105" lon="-0.12491">
        <ele>911.3</ele>
        <time>2017-07-30T12:03:25Z</time>
      </trkpt>
      <trkpt lat="42.60106" lon="-0.12483">
        <ele>911.1</ele>
        <time>2017-07-30T12:03:26Z</time>
      </trkpt>
      <trkpt lat="42.60108" lon="-0.12477">
        <ele>911</ele>
        <time>2017-07-30T12:03:27Z</time>
      </trkpt>
      <trkpt lat="42.60111" lon="-0.1247">
        <ele>910.9</ele>
        <time>2017-07-30T12:03:28Z</time>
      </trkpt>
      <trkpt lat="42.60113" lon="-0.12463">
        <ele>910.8</ele>
        <time>2017-07-30T12:03:29Z</time>
      </trkpt>
      <trkpt lat="42.60117" lon="-0.12457">
        <ele>910.6</ele>
        <time>2017-07-30T12:03:30Z</time>
      </trkpt>
      <trkpt lat="42.60119" lon="-0.12452">
        <ele>910.6</ele>
        <time>2017-07-30T12:03:31Z</time>
      </trkpt>
      <trkpt lat="42.60124" lon="-0.12448">
        <ele>910.5</ele>
        <time>2017-07-30T12:03:32Z</time>
      </trkpt>
      <trkpt lat="42.60128" lon="-0.12444">
        <ele>910.4</ele>
        <time>2017-07-30T12:03:33Z</time>
      </trkpt>
      <trkpt lat="42.60134" lon="-0.12441">
        <ele>910.3</ele>
        <time>2017-07-30T12:03:34Z</time>
      </trkpt>
      <trkpt lat="42.60138" lon="-0.12438">
        <ele>910.2</ele>
        <time>2017-07-30T12:03:35Z</time>
      </trkpt>
      <trkpt lat="42.60143" lon="-0.12434">
        <ele>910.1</ele>
        <time>2017-07-30T12:03:36Z</time>
      </trkpt>
      <trkpt lat="42.60147" lon="-0.1243">
        <ele>910</ele>
        <time>2017-07-30T12:03:37Z</time>
      </trkpt>
      <trkpt lat="42.6015" lon="-0.12426">
        <ele>909.9</ele>
        <time>2017-07-30T12:03:38Z</time>
      </trkpt>
      <trkpt lat="42.60153" lon="-0.1242">
        <ele>909.8</ele>
        <time>2017-07-30T12:03:39Z</time>
      </trkpt>
      <trkpt lat="42.60156" lon="-0.12414">
        <ele>909.6</ele>
        <time>2017-07-30T12:03:40Z</time>
      </trkpt>
      <trkpt lat="42.60159" lon="-0.12408">
        <ele>909.5</ele>
        <time>2017-07-30T12:03:41Z</time>
      </trkpt>
      <trkpt lat="42.60162" lon="-0.12402">
        <ele>909.4</ele>
        <time>2017-07-30T12:03:42Z</time>
      </trkpt>
      <trkpt lat="42.60166" lon="-0.12396">
        <ele>909.2</ele>
        <time>2017-07-30T12:03:43Z</time>
      </trkpt>
      <trkpt lat="42.60169" lon="-0.12389">
        <ele>909</ele>
        <time>2017-07-30T12:03:44Z</time>
      </trkpt>
      <trkpt lat="42.60174" lon="-0.12383">
        <ele>908.8</ele>
        <time>2017-07-30T12:03:45Z</time>
      </trkpt>
      <trkpt lat="42.60178" lon="-0.12377">
        <ele>908.7</ele>
        <time>2017-07-30T12:03:46Z</time>
      </trkpt>
      <trkpt lat="42.60183" lon="-0.12371">
        <ele>908.5</ele>
        <time>2017-07-30T12:03:47Z</time>
      </trkpt>
      <trkpt lat="42.60188" lon="-0.12366">
        <ele>908.1</ele>
        <time>2017-07-30T12:03:48Z</time>
      </trkpt>
      <trkpt lat="42.60193" lon="-0.12362">
        <ele>907.7</ele>
        <time>2017-07-30T12:03:49Z</time>
      </trkpt>
      <trkpt lat="42.60198" lon="-0.12359">
        <ele>907.3</ele>
        <time>2017-07-30T12:03:50Z</time>
      </trkpt>
      <trkpt lat="42.60203" lon="-0.12356">
        <ele>907.1</ele>
        <time>2017-07-30T12:03:51Z</time>
      </trkpt>
      <trkpt lat="42.60209" lon="-0.12354">
        <ele>907.5</ele>
        <time>2017-07-30T12:03:52Z</time>
      </trkpt>
      <trkpt lat="42.60215" lon="-0.12355">
        <ele>907.9</ele>
        <time>2017-07-30T12:03:53Z</time>
      </trkpt>
      <trkpt lat="42.60222" lon="-0.12354">
        <ele>908.3</ele>
        <time>2017-07-30T12:03:54Z</time>
      </trkpt>
      <trkpt lat="42.60228" lon="-0.12354">
        <ele>908.7</ele>
        <time>2017-07-30T12:03:55Z</time>
      </trkpt>
      <trkpt lat="42.60233" lon="-0.12354">
        <ele>909</ele>
        <time>2017-07-30T12:03:56Z</time>
      </trkpt>
      <trkpt lat="42.6024" lon="-0.12354">
        <ele>909.3</ele>
        <time>2017-07-30T12:03:57Z</time>
      </trkpt>
      <trkpt lat="42.60245" lon="-0.12354">
        <ele>909.6</ele>
        <time>2017-07-30T12:03:58Z</time>
      </trkpt>
      <trkpt lat="42.60251" lon="-0.12354">
        <ele>909.9</ele>
        <time>2017-07-30T12:03:59Z</time>
      </trkpt>
      <trkpt lat="42.60256" lon="-0.12354">
        <ele>910.2</ele>
        <time>2017-07-30T12:04:00Z</time>
      </trkpt>
      <trkpt lat="42.6026" lon="-0.12355">
        <ele>910.4</ele>
        <time>2017-07-30T12:04:01Z</time>
      </trkpt>
      <trkpt lat="42.60264" lon="-0.12355">
        <ele>910.7</ele>
        <time>2017-07-30T12:04:02Z</time>
      </trkpt>
      <trkpt lat="42.6027" lon="-0.12357">
        <ele>910.9</ele>
        <time>2017-07-30T12:04:03Z</time>
      </trkpt>
      <trkpt lat="42.60274" lon="-0.12358">
        <ele>911.1</ele>
        <time>2017-07-30T12:04:04Z</time>
      </trkpt>
      <trkpt lat="42.60278" lon="-0.12361">
        <ele>911.3</ele>
        <time>2017-07-30T12:04:05Z</time>
      </trkpt>
      <trkpt lat="42.60282" lon="-0.12365">
        <ele>911.7</ele>
        <time>2017-07-30T12:04:06Z</time>
      </trkpt>
      <trkpt lat="42.60286" lon="-0.1237">
        <ele>912.1</ele>
        <time>2017-07-30T12:04:07Z</time>
      </trkpt>
      <trkpt lat="42.6029" lon="-0.12374">
        <ele>912.4</ele>
        <time>2017-07-30T12:04:08Z</time>
      </trkpt>
      <trkpt lat="42.60294" lon="-0.12379">
        <ele>913.1</ele>
        <time>2017-07-30T12:04:09Z</time>
      </trkpt>
      <trkpt lat="42.60297" lon="-0.12383">
        <ele>913.5</ele>
        <time>2017-07-30T12:04:10Z</time>
      </trkpt>
      <trkpt lat="42.603" lon="-0.12387">
        <ele>913.9</ele>
        <time>2017-07-30T12:04:11Z</time>
      </trkpt>
      <trkpt lat="42.60303" lon="-0.12394">
        <ele>914.6</ele>
        <time>2017-07-30T12:04:12Z</time>
      </trkpt>
      <trkpt lat="42.60307" lon="-0.12397">
        <ele>915.4</ele>
        <time>2017-07-30T12:04:13Z</time>
      </trkpt>
      <trkpt lat="42.6031" lon="-0.12401">
        <ele>916.1</ele>
        <time>2017-07-30T12:04:14Z</time>
      </trkpt>
      <trkpt lat="42.60313" lon="-0.12404">
        <ele>917</ele>
        <time>2017-07-30T12:04:15Z</time>
      </trkpt>
      <trkpt lat="42.60317" lon="-0.12407">
        <ele>917.9</ele>
        <time>2017-07-30T12:04:16Z</time>
      </trkpt>
      <trkpt lat="42.6032" lon="-0.1241">
        <ele>918.8</ele>
        <time>2017-07-30T12:04:17Z</time>
      </trkpt>
      <trkpt lat="42.60324" lon="-0.12412">
        <ele>919.7</ele>
        <time>2017-07-30T12:04:18Z</time>
      </trkpt>
      <trkpt lat="42.60327" lon="-0.12413">
        <ele>920.6</ele>
        <time>2017-07-30T12:04:19Z</time>
      </trkpt>
      <trkpt lat="42.60331" lon="-0.12415">
        <ele>921.3</ele>
        <time>2017-07-30T12:04:20Z</time>
      </trkpt>
      <trkpt lat="42.60334" lon="-0.12417">
        <ele>921.7</ele>
        <time>2017-07-30T12:04:21Z</time>
      </trkpt>
      <trkpt lat="42.60338" lon="-0.12419">
        <ele>922.1</ele>
        <time>2017-07-30T12:04:22Z</time>
      </trkpt>
      <trkpt lat="42.60342" lon="-0.12421">
        <ele>922.5</ele>
        <time>2017-07-30T12:04:23Z</time>
      </trkpt>
      <trkpt lat="42.60346" lon="-0.12423">
        <ele>923</ele>
        <time>2017-07-30T12:04:24Z</time>
      </trkpt>
      <trkpt lat="42.60351" lon="-0.12426">
        <ele>923.4</ele>
        <time>2017-07-30T12:04:25Z</time>
      </trkpt>
      <trkpt lat="42.60357" lon="-0.12429">
        <ele>923.9</ele>
        <time>2017-07-30T12:04:26Z</time>
      </trkpt>
      <trkpt lat="42.60362" lon="-0.12432">
        <ele>924.4</ele>
        <time>2017-07-30T12:04:27Z</time>
      </trkpt>
      <trkpt lat="42.60367" lon="-0.12436">
        <ele>925</ele>
        <time>2017-07-30T12:04:28Z</time>
      </trkpt>
      <trkpt lat="42.60373" lon="-0.12436">
        <ele>925.4</ele>
        <time>2017-07-30T12:04:29Z</time>
      </trkpt>
      <trkpt lat="42.60379" lon="-0.12435">
        <ele>925.9</ele>
        <time>2017-07-30T12:04:30Z</time>
      </trkpt>
      <trkpt lat="42.60385" lon="-0.12433">
        <ele>926</ele>
        <time>2017-07-30T12:04:31Z</time>
      </trkpt>
      <trkpt lat="42.6039" lon="-0.1243">
        <ele>926</ele>
        <time>2017-07-30T12:04:32Z</time>
      </trkpt>
      <trkpt lat="42.60394" lon="-0.12427">
        <ele>926</ele>
        <time>2017-07-30T12:04:33Z</time>
      </trkpt>
      <trkpt lat="42.60397" lon="-0.12424">
        <ele>926</ele>
        <time>2017-07-30T12:04:34Z</time>
      </trkpt>
      <trkpt lat="42.60401" lon="-0.12422">
        <ele>926</ele>
        <time>2017-07-30T12:04:36Z</time>
      </trkpt>
      <trkpt lat="42.60404" lon="-0.12419">
        <ele>926</ele>
        <time>2017-07-30T12:04:38Z</time>
      </trkpt>
      <trkpt lat="42.60407" lon="-0.12417">
        <ele>915.9</ele>
        <time>2017-07-30T12:04:41Z</time>
      </trkpt>
      <trkpt lat="42.60409" lon="-0.12416">
        <ele>905.7</ele>
        <time>2017-07-30T12:04:43Z</time>
      </trkpt>
      <trkpt lat="42.60412" lon="-0.12414">
        <ele>904</ele>
        <time>2017-07-30T12:04:45Z</time>
      </trkpt>
      <trkpt lat="42.60415" lon="-0.12413">
        <ele>903.9</ele>
        <time>2017-07-30T12:04:48Z</time>
      </trkpt>
      <trkpt lat="42.60419" lon="-0.12413">
        <ele>903.6</ele>
        <time>2017-07-30T12:04:50Z</time>
      </trkpt>
      <trkpt lat="42.60422" lon="-0.1241">
        <ele>903.2</ele>
        <time>2017-07-30T12:04:52Z</time>
      </trkpt>
      <trkpt lat="42.60426" lon="-0.12406">
        <ele>902.8</ele>
        <time>2017-07-30T12:04:54Z</time>
      </trkpt>
      <trkpt lat="42.60428" lon="-0.12403">
        <ele>902.5</ele>
        <time>2017-07-30T12:04:55Z</time>
      </trkpt>
      <trkpt lat="42.60431" lon="-0.124">
        <ele>902.3</ele>
        <time>2017-07-30T12:04:56Z</time>
      </trkpt>
      <trkpt lat="42.60434" lon="-0.12397">
        <ele>902</ele>
        <time>2017-07-30T12:04:57Z</time>
      </trkpt>
      <trkpt lat="42.60437" lon="-0.12394">
        <ele>901.6</ele>
        <time>2017-07-30T12:04:58Z</time>
      </trkpt>
      <trkpt lat="42.60439" lon="-0.12391">
        <ele>901.3</ele>
        <time>2017-07-30T12:04:59Z</time>
      </trkpt>
      <trkpt lat="42.60442" lon="-0.12388">
        <ele>901</ele>
        <time>2017-07-30T12:05:00Z</time>
      </trkpt>
      <trkpt lat="42.60445" lon="-0.12385">
        <ele>900.7</ele>
        <time>2017-07-30T12:05:01Z</time>
      </trkpt>
      <trkpt lat="42.60448" lon="-0.12382">
        <ele>900.4</ele>
        <time>2017-07-30T12:05:02Z</time>
      </trkpt>
      <trkpt lat="42.60451" lon="-0.1238">
        <ele>900.2</ele>
        <time>2017-07-30T12:05:03Z</time>
      </trkpt>
      <trkpt lat="42.60453" lon="-0.12377">
        <ele>899.9</ele>
        <time>2017-07-30T12:05:04Z</time>
      </trkpt>
      <trkpt lat="42.60456" lon="-0.12374">
        <ele>899.6</ele>
        <time>2017-07-30T12:05:05Z</time>
      </trkpt>
      <trkpt lat="42.60459" lon="-0.12371">
        <ele>899.3</ele>
        <time>2017-07-30T12:05:06Z</time>
      </trkpt>
      <trkpt lat="42.60462" lon="-0.12368">
        <ele>899</ele>
        <time>2017-07-30T12:05:07Z</time>
      </trkpt>
      <trkpt lat="42.60465" lon="-0.12365">
        <ele>899</ele>
        <time>2017-07-30T12:05:08Z</time>
      </trkpt>
      <trkpt lat="42.60467" lon="-0.12362">
        <ele>899</ele>
        <time>2017-07-30T12:05:09Z</time>
      </trkpt>
      <trkpt lat="42.6047" lon="-0.12358">
        <ele>899</ele>
        <time>2017-07-30T12:05:10Z</time>
      </trkpt>
      <trkpt lat="42.60472" lon="-0.12355">
        <ele>899</ele>
        <time>2017-07-30T12:05:11Z</time>
      </trkpt>
      <trkpt lat="42.60474" lon="-0.12351">
        <ele>899</ele>
        <time>2017-07-30T12:05:12Z</time>
      </trkpt>
      <trkpt lat="42.60477" lon="-0.12349">
        <ele>899</ele>
        <time>2017-07-30T12:05:13Z</time>
      </trkpt>
      <trkpt lat="42.6048" lon="-0.12349">
        <ele>898.9</ele>
        <time>2017-07-30T12:05:14Z</time>
      </trkpt>
      <trkpt lat="42.60484" lon="-0.12351">
        <ele>898.8</ele>
        <time>2017-07-30T12:05:15Z</time>
      </trkpt>
      <trkpt lat="42.60487" lon="-0.12354">
        <ele>898.8</ele>
        <time>2017-07-30T12:05:16Z</time>
      </trkpt>
      <trkpt lat="42.60489" lon="-0.12357">
        <ele>898.7</ele>
        <time>2017-07-30T12:05:17Z</time>
      </trkpt>
      <trkpt lat="42.60492" lon="-0.12361">
        <ele>898.6</ele>
        <time>2017-07-30T12:05:19Z</time>
      </trkpt>
      <trkpt lat="42.60495" lon="-0.12364">
        <ele>898.6</ele>
        <time>2017-07-30T12:05:21Z</time>
      </trkpt>
      <trkpt lat="42.60498" lon="-0.12367">
        <ele>898.5</ele>
        <time>2017-07-30T12:05:23Z</time>
      </trkpt>
      <trkpt lat="42.605" lon="-0.12371">
        <ele>898.4</ele>
        <time>2017-07-30T12:05:25Z</time>
      </trkpt>
      <trkpt lat="42.60502" lon="-0.12374">
        <ele>898.3</ele>
        <time>2017-07-30T12:05:27Z</time>
      </trkpt>
      <trkpt lat="42.60504" lon="-0.12377">
        <ele>898.3</ele>
        <time>2017-07-30T12:05:29Z</time>
      </trkpt>
      <trkpt lat="42.60504" lon="-0.12373">
        <ele>897.5</ele>
        <time>2017-07-30T12:05:33Z</time>
      </trkpt>
      <trkpt lat="42.60501" lon="-0.1237">
        <ele>897.4</ele>
        <time>2017-07-30T12:05:34Z</time>
      </trkpt>
      <trkpt lat="42.60498" lon="-0.12368">
        <ele>897.2</ele>
        <time>2017-07-30T12:05:35Z</time>
      </trkpt>
      <trkpt lat="42.60494" lon="-0.12365">
        <ele>897</ele>
        <time>2017-07-30T12:05:36Z</time>
      </trkpt>
      <trkpt lat="42.60491" lon="-0.12362">
        <ele>896.8</ele>
        <time>2017-07-30T12:05:37Z</time>
      </trkpt>
      <trkpt lat="42.60487" lon="-0.12359">
        <ele>896.7</ele>
        <time>2017-07-30T12:05:38Z</time>
      </trkpt>
      <trkpt lat="42.60484" lon="-0.12356">
        <ele>896.5</ele>
        <time>2017-07-30T12:05:39Z</time>
      </trkpt>
      <trkpt lat="42.60481" lon="-0.12353">
        <ele>896.3</ele>
        <time>2017-07-30T12:05:40Z</time>
      </trkpt>
      <trkpt lat="42.60477" lon="-0.12349">
        <ele>896.1</ele>
        <time>2017-07-30T12:05:41Z</time>
      </trkpt>
      <trkpt lat="42.60476" lon="-0.12342">
        <ele>895.9</ele>
        <time>2017-07-30T12:05:42Z</time>
      </trkpt>
      <trkpt lat="42.60474" lon="-0.12335">
        <ele>895.7</ele>
        <time>2017-07-30T12:05:43Z</time>
      </trkpt>
      <trkpt lat="42.60471" lon="-0.1233">
        <ele>895.5</ele>
        <time>2017-07-30T12:05:44Z</time>
      </trkpt>
      <trkpt lat="42.60468" lon="-0.12326">
        <ele>895.3</ele>
        <time>2017-07-30T12:05:45Z</time>
      </trkpt>
      <trkpt lat="42.60464" lon="-0.12321">
        <ele>895.1</ele>
        <time>2017-07-30T12:05:46Z</time>
      </trkpt>
      <trkpt lat="42.60462" lon="-0.12316">
        <ele>895</ele>
        <time>2017-07-30T12:05:47Z</time>
      </trkpt>
      <trkpt lat="42.60459" lon="-0.12312">
        <ele>895</ele>
        <time>2017-07-30T12:05:48Z</time>
      </trkpt>
      <trkpt lat="42.60457" lon="-0.12306">
        <ele>895</ele>
        <time>2017-07-30T12:05:49Z</time>
      </trkpt>
      <trkpt lat="42.60454" lon="-0.12301">
        <ele>895</ele>
        <time>2017-07-30T12:05:50Z</time>
      </trkpt>
      <trkpt lat="42.60452" lon="-0.12297">
        <ele>895</ele>
        <time>2017-07-30T12:05:51Z</time>
      </trkpt>
      <trkpt lat="42.6045" lon="-0.12293">
        <ele>895</ele>
        <time>2017-07-30T12:05:52Z</time>
      </trkpt>
      <trkpt lat="42.60448" lon="-0.12288">
        <ele>895</ele>
        <time>2017-07-30T12:05:53Z</time>
      </trkpt>
      <trkpt lat="42.60445" lon="-0.12284">
        <ele>895</ele>
        <time>2017-07-30T12:05:54Z</time>
      </trkpt>
      <trkpt lat="42.60443" lon="-0.1228">
        <ele>895</ele>
        <time>2017-07-30T12:05:55Z</time>
      </trkpt>
      <trkpt lat="42.6044" lon="-0.12277">
        <ele>895.1</ele>
        <time>2017-07-30T12:05:56Z</time>
      </trkpt>
      <trkpt lat="42.60437" lon="-0.12271">
        <ele>895.6</ele>
        <time>2017-07-30T12:05:57Z</time>
      </trkpt>
      <trkpt lat="42.60435" lon="-0.12265">
        <ele>896.1</ele>
        <time>2017-07-30T12:05:58Z</time>
      </trkpt>
      <trkpt lat="42.60434" lon="-0.12258">
        <ele>896.6</ele>
        <time>2017-07-30T12:05:59Z</time>
      </trkpt>
      <trkpt lat="42.60431" lon="-0.12254">
        <ele>897.1</ele>
        <time>2017-07-30T12:06:00Z</time>
      </trkpt>
      <trkpt lat="42.60429" lon="-0.12248">
        <ele>897.5</ele>
        <time>2017-07-30T12:06:01Z</time>
      </trkpt>
      <trkpt lat="42.60426" lon="-0.12243">
        <ele>898</ele>
        <time>2017-07-30T12:06:02Z</time>
      </trkpt>
      <trkpt lat="42.60424" lon="-0.12237">
        <ele>895.9</ele>
        <time>2017-07-30T12:06:03Z</time>
      </trkpt>
      <trkpt lat="42.60423" lon="-0.1223">
        <ele>893.5</ele>
        <time>2017-07-30T12:06:04Z</time>
      </trkpt>
      <trkpt lat="42.6042" lon="-0.1222">
        <ele>892</ele>
        <time>2017-07-30T12:06:06Z</time>
      </trkpt>
      <trkpt lat="42.60415" lon="-0.12216">
        <ele>892</ele>
        <time>2017-07-30T12:06:07Z</time>
      </trkpt>
      <trkpt lat="42.60411" lon="-0.12211">
        <ele>892.1</ele>
        <time>2017-07-30T12:06:08Z</time>
      </trkpt>
      <trkpt lat="42.60408" lon="-0.12205">
        <ele>892.3</ele>
        <time>2017-07-30T12:06:09Z</time>
      </trkpt>
      <trkpt lat="42.60404" lon="-0.12199">
        <ele>892.4</ele>
        <time>2017-07-30T12:06:10Z</time>
      </trkpt>
      <trkpt lat="42.60401" lon="-0.12193">
        <ele>892.5</ele>
        <time>2017-07-30T12:06:11Z</time>
      </trkpt>
      <trkpt lat="42.60398" lon="-0.12185">
        <ele>892.2</ele>
        <time>2017-07-30T12:06:12Z</time>
      </trkpt>
      <trkpt lat="42.60395" lon="-0.12178">
        <ele>891.9</ele>
        <time>2017-07-30T12:06:13Z</time>
      </trkpt>
      <trkpt lat="42.60392" lon="-0.12171">
        <ele>892</ele>
        <time>2017-07-30T12:06:14Z</time>
      </trkpt>
      <trkpt lat="42.60388" lon="-0.12165">
        <ele>892.1</ele>
        <time>2017-07-30T12:06:15Z</time>
      </trkpt>
      <trkpt lat="42.60383" lon="-0.12161">
        <ele>892.2</ele>
        <time>2017-07-30T12:06:16Z</time>
      </trkpt>
      <trkpt lat="42.60382" lon="-0.12153">
        <ele>892.3</ele>
        <time>2017-07-30T12:06:17Z</time>
      </trkpt>
      <trkpt lat="42.60377" lon="-0.12149">
        <ele>892.4</ele>
        <time>2017-07-30T12:06:18Z</time>
      </trkpt>
      <trkpt lat="42.60372" lon="-0.12145">
        <ele>892.5</ele>
        <time>2017-07-30T12:06:19Z</time>
      </trkpt>
      <trkpt lat="42.60368" lon="-0.1214">
        <ele>892.6</ele>
        <time>2017-07-30T12:06:20Z</time>
      </trkpt>
      <trkpt lat="42.60365" lon="-0.12136">
        <ele>892.7</ele>
        <time>2017-07-30T12:06:21Z</time>
      </trkpt>
      <trkpt lat="42.60361" lon="-0.1213">
        <ele>892.8</ele>
        <time>2017-07-30T12:06:22Z</time>
      </trkpt>
      <trkpt lat="42.60358" lon="-0.12125">
        <ele>892.8</ele>
        <time>2017-07-30T12:06:23Z</time>
      </trkpt>
      <trkpt lat="42.60354" lon="-0.12122">
        <ele>892.9</ele>
        <time>2017-07-30T12:06:24Z</time>
      </trkpt>
      <trkpt lat="42.60351" lon="-0.12117">
        <ele>893</ele>
        <time>2017-07-30T12:06:25Z</time>
      </trkpt>
      <trkpt lat="42.60347" lon="-0.12112">
        <ele>893</ele>
        <time>2017-07-30T12:06:26Z</time>
      </trkpt>
      <trkpt lat="42.60344" lon="-0.12108">
        <ele>893</ele>
        <time>2017-07-30T12:06:27Z</time>
      </trkpt>
      <trkpt lat="42.6034" lon="-0.12105">
        <ele>893.1</ele>
        <time>2017-07-30T12:06:28Z</time>
      </trkpt>
      <trkpt lat="42.60336" lon="-0.121">
        <ele>893.2</ele>
        <time>2017-07-30T12:06:29Z</time>
      </trkpt>
      <trkpt lat="42.60332" lon="-0.12097">
        <ele>893.2</ele>
        <time>2017-07-30T12:06:30Z</time>
      </trkpt>
      <trkpt lat="42.60327" lon="-0.12094">
        <ele>893.3</ele>
        <time>2017-07-30T12:06:31Z</time>
      </trkpt>
      <trkpt lat="42.60323" lon="-0.12091">
        <ele>893.3</ele>
        <time>2017-07-30T12:06:32Z</time>
      </trkpt>
      <trkpt lat="42.60318" lon="-0.12088">
        <ele>893.4</ele>
        <time>2017-07-30T12:06:33Z</time>
      </trkpt>
      <trkpt lat="42.60315" lon="-0.12085">
        <ele>893.4</ele>
        <time>2017-07-30T12:06:34Z</time>
      </trkpt>
      <trkpt lat="42.60309" lon="-0.12087">
        <ele>893.5</ele>
        <time>2017-07-30T12:06:35Z</time>
      </trkpt>
      <trkpt lat="42.60304" lon="-0.12082">
        <ele>893.6</ele>
        <time>2017-07-30T12:06:37Z</time>
      </trkpt>
      <trkpt lat="42.603" lon="-0.12078">
        <ele>893.7</ele>
        <time>2017-07-30T12:06:38Z</time>
      </trkpt>
      <trkpt lat="42.60295" lon="-0.12076">
        <ele>893.7</ele>
        <time>2017-07-30T12:06:39Z</time>
      </trkpt>
      <trkpt lat="42.60291" lon="-0.12073">
        <ele>893.8</ele>
        <time>2017-07-30T12:06:40Z</time>
      </trkpt>
      <trkpt lat="42.60286" lon="-0.12072">
        <ele>893.9</ele>
        <time>2017-07-30T12:06:41Z</time>
      </trkpt>
      <trkpt lat="42.60282" lon="-0.12069">
        <ele>894</ele>
        <time>2017-07-30T12:06:42Z</time>
      </trkpt>
      <trkpt lat="42.60278" lon="-0.12068">
        <ele>894</ele>
        <time>2017-07-30T12:06:43Z</time>
      </trkpt>
      <trkpt lat="42.60275" lon="-0.12067">
        <ele>894</ele>
        <time>2017-07-30T12:06:44Z</time>
      </trkpt>
      <trkpt lat="42.60271" lon="-0.12066">
        <ele>894</ele>
        <time>2017-07-30T12:06:45Z</time>
      </trkpt>
      <trkpt lat="42.60266" lon="-0.12065">
        <ele>894</ele>
        <time>2017-07-30T12:06:46Z</time>
      </trkpt>
      <trkpt lat="42.6026" lon="-0.12063">
        <ele>894</ele>
        <time>2017-07-30T12:06:47Z</time>
      </trkpt>
      <trkpt lat="42.60254" lon="-0.12064">
        <ele>894</ele>
        <time>2017-07-30T12:06:48Z</time>
      </trkpt>
      <trkpt lat="42.60248" lon="-0.12065">
        <ele>895.7</ele>
        <time>2017-07-30T12:06:49Z</time>
      </trkpt>
      <trkpt lat="42.60242" lon="-0.12066">
        <ele>897</ele>
        <time>2017-07-30T12:06:50Z</time>
      </trkpt>
      <trkpt lat="42.60237" lon="-0.12067">
        <ele>897</ele>
        <time>2017-07-30T12:06:51Z</time>
      </trkpt>
      <trkpt lat="42.60231" lon="-0.12068">
        <ele>897</ele>
        <time>2017-07-30T12:06:52Z</time>
      </trkpt>
      <trkpt lat="42.60226" lon="-0.12069">
        <ele>897</ele>
        <time>2017-07-30T12:06:53Z</time>
      </trkpt>
      <trkpt lat="42.6022" lon="-0.12072">
        <ele>897</ele>
        <time>2017-07-30T12:06:54Z</time>
      </trkpt>
      <trkpt lat="42.60215" lon="-0.12074">
        <ele>897</ele>
        <time>2017-07-30T12:06:55Z</time>
      </trkpt>
      <trkpt lat="42.60211" lon="-0.12075">
        <ele>897</ele>
        <time>2017-07-30T12:06:56Z</time>
      </trkpt>
      <trkpt lat="42.60207" lon="-0.12076">
        <ele>897</ele>
        <time>2017-07-30T12:06:57Z</time>
      </trkpt>
      <trkpt lat="42.60204" lon="-0.12077">
        <ele>897</ele>
        <time>2017-07-30T12:06:58Z</time>
      </trkpt>
      <trkpt lat="42.60201" lon="-0.1208">
        <ele>897</ele>
        <time>2017-07-30T12:06:59Z</time>
      </trkpt>
      <trkpt lat="42.60202" lon="-0.12083">
        <ele>897.1</ele>
        <time>2017-07-30T12:07:08Z</time>
      </trkpt>
    </trkseg>
  </trk>
  <trk>
    <name><![CDATA[Ainsa 4 puis un bout 5]]></name>
    <extensions>
      <line xmlns="http://www.topografix.com/GPX/gpx_style/0/2">
        <color>008800</color>
        <width>4</width>
      </line>
    </extensions>
    <trkseg>
      <trkpt lat="42.41541" lon="0.1407">
        <ele>538.5</ele>
        <time>2017-07-02T09:19:30Z</time>
      </trkpt>
      <trkpt lat="42.41508" lon="0.14402">
        <ele>525</ele>
        <time>2017-07-02T09:19:36Z</time>
      </trkpt>
      <trkpt lat="42.41511" lon="0.144">
        <ele>525.1</ele>
        <time>2017-07-02T09:19:37Z</time>
      </trkpt>
      <trkpt lat="42.41511" lon="0.14408">
        <ele>525.3</ele>
        <time>2017-07-02T09:19:38Z</time>
      </trkpt>
      <trkpt lat="42.41506" lon="0.14402">
        <ele>525.5</ele>
        <time>2017-07-02T09:19:39Z</time>
      </trkpt>
      <trkpt lat="42.4151" lon="0.1441">
        <ele>525.8</ele>
        <time>2017-07-02T09:19:40Z</time>
      </trkpt>
      <trkpt lat="42.41511" lon="0.14417">
        <ele>526</ele>
        <time>2017-07-02T09:19:41Z</time>
      </trkpt>
      <trkpt lat="42.41518" lon="0.14415">
        <ele>526.2</ele>
        <time>2017-07-02T09:19:46Z</time>
      </trkpt>
      <trkpt lat="42.41514" lon="0.14415">
        <ele>530</ele>
        <time>2017-07-02T09:19:50Z</time>
      </trkpt>
      <trkpt lat="42.41511" lon="0.14414">
        <ele>530</ele>
        <time>2017-07-02T09:19:58Z</time>
      </trkpt>
      <trkpt lat="42.41508" lon="0.14414">
        <ele>530</ele>
        <time>2017-07-02T09:20:01Z</time>
      </trkpt>
      <trkpt lat="42.41502" lon="0.14414">
        <ele>530</ele>
        <time>2017-07-02T09:26:14Z</time>
      </trkpt>
      <trkpt lat="42.41503" lon="0.14418">
        <ele>530</ele>
        <time>2017-07-02T09:26:17Z</time>
      </trkpt>
      <trkpt lat="42.41507" lon="0.1442">
        <ele>530</ele>
        <time>2017-07-02T09:26:21Z</time>
      </trkpt>
      <trkpt lat="42.4151" lon="0.14418">
        <ele>530</ele>
        <time>2017-07-02T09:26:31Z</time>
      </trkpt>
      <trkpt lat="42.41508" lon="0.14422">
        <ele>530</ele>
        <time>2017-07-02T09:26:34Z</time>
      </trkpt>
      <trkpt lat="42.41505" lon="0.14421">
        <ele>530</ele>
        <time>2017-07-02T09:26:36Z</time>
      </trkpt>
      <trkpt lat="42.41502" lon="0.14417">
        <ele>530</ele>
        <time>2017-07-02T09:26:38Z</time>
      </trkpt>
      <trkpt lat="42.41501" lon="0.1441">
        <ele>530</ele>
        <time>2017-07-02T09:26:40Z</time>
      </trkpt>
      <trkpt lat="42.41497" lon="0.14408">
        <ele>530</ele>
        <time>2017-07-02T09:26:42Z</time>
      </trkpt>
      <trkpt lat="42.41495" lon="0.14411">
        <ele>530</ele>
        <time>2017-07-02T09:26:43Z</time>
      </trkpt>
      <trkpt lat="42.41493" lon="0.14415">
        <ele>530</ele>
        <time>2017-07-02T09:26:44Z</time>
      </trkpt>
      <trkpt lat="42.41492" lon="0.14418">
        <ele>530</ele>
        <time>2017-07-02T09:26:45Z</time>
      </trkpt>
      <trkpt lat="42.4149" lon="0.14422">
        <ele>530</ele>
        <time>2017-07-02T09:26:46Z</time>
      </trkpt>
      <trkpt lat="42.41489" lon="0.14426">
        <ele>530</ele>
        <time>2017-07-02T09:26:47Z</time>
      </trkpt>
      <trkpt lat="42.41489" lon="0.14429">
        <ele>530</ele>
        <time>2017-07-02T09:26:48Z</time>
      </trkpt>
      <trkpt lat="42.41488" lon="0.14433">
        <ele>530</ele>
        <time>2017-07-02T09:26:49Z</time>
      </trkpt>
      <trkpt lat="42.41488" lon="0.14437">
        <ele>530</ele>
        <time>2017-07-02T09:26:50Z</time>
      </trkpt>
      <trkpt lat="42.41489" lon="0.14441">
        <ele>530</ele>
        <time>2017-07-02T09:26:51Z</time>
      </trkpt>
      <trkpt lat="42.41491" lon="0.14443">
        <ele>530</ele>
        <time>2017-07-02T09:26:52Z</time>
      </trkpt>
      <trkpt lat="42.41494" lon="0.14445">
        <ele>530</ele>
        <time>2017-07-02T09:26:53Z</time>
      </trkpt>
      <trkpt lat="42.41498" lon="0.14446">
        <ele>530</ele>
        <time>2017-07-02T09:26:54Z</time>
      </trkpt>
      <trkpt lat="42.41501" lon="0.14447">
        <ele>530</ele>
        <time>2017-07-02T09:26:55Z</time>
      </trkpt>
      <trkpt lat="42.41504" lon="0.14448">
        <ele>530</ele>
        <time>2017-07-02T09:26:56Z</time>
      </trkpt>
      <trkpt lat="42.41508" lon="0.1445">
        <ele>530</ele>
        <time>2017-07-02T09:26:57Z</time>
      </trkpt>
      <trkpt lat="42.41511" lon="0.14451">
        <ele>530</ele>
        <time>2017-07-02T09:26:58Z</time>
      </trkpt>
      <trkpt lat="42.41515" lon="0.14452">
        <ele>530</ele>
        <time>2017-07-02T09:26:59Z</time>
      </trkpt>
      <trkpt lat="42.41519" lon="0.14453">
        <ele>530</ele>
        <time>2017-07-02T09:27:00Z</time>
      </trkpt>
      <trkpt lat="42.41523" lon="0.14453">
        <ele>530</ele>
        <time>2017-07-02T09:27:01Z</time>
      </trkpt>
      <trkpt lat="42.41527" lon="0.14453">
        <ele>530</ele>
        <time>2017-07-02T09:27:02Z</time>
      </trkpt>
      <trkpt lat="42.41531" lon="0.14451">
        <ele>530</ele>
        <time>2017-07-02T09:27:03Z</time>
      </trkpt>
      <trkpt lat="42.41533" lon="0.14447">
        <ele>530</ele>
        <time>2017-07-02T09:27:04Z</time>
      </trkpt>
      <trkpt lat="42.41532" lon="0.14436">
        <ele>530</ele>
        <time>2017-07-02T09:27:05Z</time>
      </trkpt>
      <trkpt lat="42.41531" lon="0.1443">
        <ele>530</ele>
        <time>2017-07-02T09:27:06Z</time>
      </trkpt>
      <trkpt lat="42.4153" lon="0.14424">
        <ele>530</ele>
        <time>2017-07-02T09:27:07Z</time>
      </trkpt>
      <trkpt lat="42.41528" lon="0.14419">
        <ele>529.9</ele>
        <time>2017-07-02T09:27:08Z</time>
      </trkpt>
      <trkpt lat="42.41526" lon="0.14414">
        <ele>528.4</ele>
        <time>2017-07-02T09:27:09Z</time>
      </trkpt>
      <trkpt lat="42.41524" lon="0.14406">
        <ele>526.6</ele>
        <time>2017-07-02T09:27:10Z</time>
      </trkpt>
      <trkpt lat="42.41522" lon="0.14402">
        <ele>525</ele>
        <time>2017-07-02T09:27:11Z</time>
      </trkpt>
      <trkpt lat="42.41522" lon="0.14396">
        <ele>525</ele>
        <time>2017-07-02T09:27:12Z</time>
      </trkpt>
      <trkpt lat="42.4152" lon="0.14391">
        <ele>525</ele>
        <time>2017-07-02T09:27:13Z</time>
      </trkpt>
      <trkpt lat="42.41519" lon="0.14385">
        <ele>525</ele>
        <time>2017-07-02T09:27:14Z</time>
      </trkpt>
      <trkpt lat="42.41518" lon="0.1438">
        <ele>525</ele>
        <time>2017-07-02T09:27:15Z</time>
      </trkpt>
      <trkpt lat="42.41517" lon="0.14374">
        <ele>525</ele>
        <time>2017-07-02T09:27:16Z</time>
      </trkpt>
      <trkpt lat="42.41515" lon="0.14368">
        <ele>525</ele>
        <time>2017-07-02T09:27:17Z</time>
      </trkpt>
      <trkpt lat="42.41514" lon="0.14361">
        <ele>525</ele>
        <time>2017-07-02T09:27:18Z</time>
      </trkpt>
      <trkpt lat="42.41513" lon="0.14354">
        <ele>525.2</ele>
        <time>2017-07-02T09:27:19Z</time>
      </trkpt>
      <trkpt lat="42.41511" lon="0.14345">
        <ele>526</ele>
        <time>2017-07-02T09:27:20Z</time>
      </trkpt>
      <trkpt lat="42.4151" lon="0.14338">
        <ele>526.5</ele>
        <time>2017-07-02T09:27:21Z</time>
      </trkpt>
      <trkpt lat="42.41508" lon="0.14331">
        <ele>527.2</ele>
        <time>2017-07-02T09:27:22Z</time>
      </trkpt>
      <trkpt lat="42.41507" lon="0.14325">
        <ele>527.9</ele>
        <time>2017-07-02T09:27:23Z</time>
      </trkpt>
      <trkpt lat="42.41506" lon="0.14318">
        <ele>528.4</ele>
        <time>2017-07-02T09:27:24Z</time>
      </trkpt>
      <trkpt lat="42.41504" lon="0.14311">
        <ele>528.9</ele>
        <time>2017-07-02T09:27:25Z</time>
      </trkpt>
      <trkpt lat="42.41503" lon="0.14303">
        <ele>529.4</ele>
        <time>2017-07-02T09:27:26Z</time>
      </trkpt>
      <trkpt lat="42.41502" lon="0.14297">
        <ele>529.9</ele>
        <time>2017-07-02T09:27:27Z</time>
      </trkpt>
      <trkpt lat="42.41501" lon="0.1429">
        <ele>530.3</ele>
        <time>2017-07-02T09:27:28Z</time>
      </trkpt>
      <trkpt lat="42.41501" lon="0.14283">
        <ele>530.8</ele>
        <time>2017-07-02T09:27:29Z</time>
      </trkpt>
      <trkpt lat="42.415" lon="0.14276">
        <ele>531.2</ele>
        <time>2017-07-02T09:27:30Z</time>
      </trkpt>
      <trkpt lat="42.41499" lon="0.1427">
        <ele>531.4</ele>
        <time>2017-07-02T09:27:31Z</time>
      </trkpt>
      <trkpt lat="42.41498" lon="0.14262">
        <ele>531.7</ele>
        <time>2017-07-02T09:27:32Z</time>
      </trkpt>
      <trkpt lat="42.41497" lon="0.14255">
        <ele>532</ele>
        <time>2017-07-02T09:27:33Z</time>
      </trkpt>
      <trkpt lat="42.41497" lon="0.14249">
        <ele>532.3</ele>
        <time>2017-07-02T09:27:34Z</time>
      </trkpt>
      <trkpt lat="42.41496" lon="0.14243">
        <ele>532.5</ele>
        <time>2017-07-02T09:27:35Z</time>
      </trkpt>
      <trkpt lat="42.41496" lon="0.14236">
        <ele>532.8</ele>
        <time>2017-07-02T09:27:36Z</time>
      </trkpt>
      <trkpt lat="42.41495" lon="0.1423">
        <ele>533</ele>
        <time>2017-07-02T09:27:37Z</time>
      </trkpt>
      <trkpt lat="42.41494" lon="0.14224">
        <ele>533.3</ele>
        <time>2017-07-02T09:27:38Z</time>
      </trkpt>
      <trkpt lat="42.41494" lon="0.14217">
        <ele>533.6</ele>
        <time>2017-07-02T09:27:39Z</time>
      </trkpt>
      <trkpt lat="42.41493" lon="0.1421">
        <ele>533.9</ele>
        <time>2017-07-02T09:27:40Z</time>
      </trkpt>
      <trkpt lat="42.41492" lon="0.14205">
        <ele>534.1</ele>
        <time>2017-07-02T09:27:41Z</time>
      </trkpt>
      <trkpt lat="42.41491" lon="0.14199">
        <ele>534.4</ele>
        <time>2017-07-02T09:27:42Z</time>
      </trkpt>
      <trkpt lat="42.4149" lon="0.14194">
        <ele>534.6</ele>
        <time>2017-07-02T09:27:43Z</time>
      </trkpt>
      <trkpt lat="42.41489" lon="0.14187">
        <ele>535</ele>
        <time>2017-07-02T09:27:44Z</time>
      </trkpt>
      <trkpt lat="42.41488" lon="0.14181">
        <ele>535.2</ele>
        <time>2017-07-02T09:27:45Z</time>
      </trkpt>
      <trkpt lat="42.41487" lon="0.14175">
        <ele>535.5</ele>
        <time>2017-07-02T09:27:46Z</time>
      </trkpt>
      <trkpt lat="42.41485" lon="0.14168">
        <ele>535.9</ele>
        <time>2017-07-02T09:27:47Z</time>
      </trkpt>
      <trkpt lat="42.41484" lon="0.1416">
        <ele>536</ele>
        <time>2017-07-02T09:27:48Z</time>
      </trkpt>
      <trkpt lat="42.41483" lon="0.14154">
        <ele>535.9</ele>
        <time>2017-07-02T09:27:49Z</time>
      </trkpt>
      <trkpt lat="42.41482" lon="0.14149">
        <ele>535.8</ele>
        <time>2017-07-02T09:27:50Z</time>
      </trkpt>
      <trkpt lat="42.41482" lon="0.14142">
        <ele>535.7</ele>
        <time>2017-07-02T09:27:51Z</time>
      </trkpt>
      <trkpt lat="42.4148" lon="0.14137">
        <ele>535.6</ele>
        <time>2017-07-02T09:27:52Z</time>
      </trkpt>
      <trkpt lat="42.41479" lon="0.1413">
        <ele>535.4</ele>
        <time>2017-07-02T09:27:53Z</time>
      </trkpt>
      <trkpt lat="42.41478" lon="0.14124">
        <ele>535.3</ele>
        <time>2017-07-02T09:27:54Z</time>
      </trkpt>
      <trkpt lat="42.41477" lon="0.14118">
        <ele>535.1</ele>
        <time>2017-07-02T09:27:55Z</time>
      </trkpt>
      <trkpt lat="42.41477" lon="0.14113">
        <ele>535</ele>
        <time>2017-07-02T09:27:56Z</time>
      </trkpt>
      <trkpt lat="42.41477" lon="0.14108">
        <ele>534.9</ele>
        <time>2017-07-02T09:27:57Z</time>
      </trkpt>
      <trkpt lat="42.41476" lon="0.141">
        <ele>534.7</ele>
        <time>2017-07-02T09:27:58Z</time>
      </trkpt>
      <trkpt lat="42.41475" lon="0.14096">
        <ele>534.6</ele>
        <time>2017-07-02T09:27:59Z</time>
      </trkpt>
      <trkpt lat="42.41476" lon="0.14089">
        <ele>534.5</ele>
        <time>2017-07-02T09:28:00Z</time>
      </trkpt>
      <trkpt lat="42.41476" lon="0.14083">
        <ele>534.4</ele>
        <time>2017-07-02T09:28:01Z</time>
      </trkpt>
      <trkpt lat="42.41475" lon="0.14077">
        <ele>534.3</ele>
        <time>2017-07-02T09:28:02Z</time>
      </trkpt>
      <trkpt lat="42.41474" lon="0.14072">
        <ele>534.2</ele>
        <time>2017-07-02T09:28:03Z</time>
      </trkpt>
      <trkpt lat="42.41473" lon="0.14067">
        <ele>534.1</ele>
        <time>2017-07-02T09:28:04Z</time>
      </trkpt>
      <trkpt lat="42.41473" lon="0.1406">
        <ele>534</ele>
        <time>2017-07-02T09:28:06Z</time>
      </trkpt>
      <trkpt lat="42.4147" lon="0.14055">
        <ele>534</ele>
        <time>2017-07-02T09:28:08Z</time>
      </trkpt>
      <trkpt lat="42.41468" lon="0.14049">
        <ele>534</ele>
        <time>2017-07-02T09:28:10Z</time>
      </trkpt>
      <trkpt lat="42.41466" lon="0.14044">
        <ele>534</ele>
        <time>2017-07-02T09:28:12Z</time>
      </trkpt>
      <trkpt lat="42.41463" lon="0.14037">
        <ele>534</ele>
        <time>2017-07-02T09:28:14Z</time>
      </trkpt>
      <trkpt lat="42.4146" lon="0.14033">
        <ele>534</ele>
        <time>2017-07-02T09:28:15Z</time>
      </trkpt>
      <trkpt lat="42.41457" lon="0.14031">
        <ele>534</ele>
        <time>2017-07-02T09:28:16Z</time>
      </trkpt>
      <trkpt lat="42.41453" lon="0.1403">
        <ele>534</ele>
        <time>2017-07-02T09:28:17Z</time>
      </trkpt>
      <trkpt lat="42.41448" lon="0.14031">
        <ele>534</ele>
        <time>2017-07-02T09:28:18Z</time>
      </trkpt>
      <trkpt lat="42.41443" lon="0.14031">
        <ele>534</ele>
        <time>2017-07-02T09:28:19Z</time>
      </trkpt>
      <trkpt lat="42.41438" lon="0.14032">
        <ele>534</ele>
        <time>2017-07-02T09:28:20Z</time>
      </trkpt>
      <trkpt lat="42.41434" lon="0.14032">
        <ele>534</ele>
        <time>2017-07-02T09:28:21Z</time>
      </trkpt>
      <trkpt lat="42.41429" lon="0.14032">
        <ele>534</ele>
        <time>2017-07-02T09:28:22Z</time>
      </trkpt>
      <trkpt lat="42.41425" lon="0.14032">
        <ele>534</ele>
        <time>2017-07-02T09:28:23Z</time>
      </trkpt>
      <trkpt lat="42.4142" lon="0.14033">
        <ele>533.8</ele>
        <time>2017-07-02T09:28:24Z</time>
      </trkpt>
      <trkpt lat="42.41416" lon="0.14033">
        <ele>533.5</ele>
        <time>2017-07-02T09:28:25Z</time>
      </trkpt>
      <trkpt lat="42.41411" lon="0.14034">
        <ele>533.2</ele>
        <time>2017-07-02T09:28:26Z</time>
      </trkpt>
      <trkpt lat="42.41407" lon="0.14035">
        <ele>532.8</ele>
        <time>2017-07-02T09:28:27Z</time>
      </trkpt>
      <trkpt lat="42.41403" lon="0.14035">
        <ele>532.6</ele>
        <time>2017-07-02T09:28:28Z</time>
      </trkpt>
      <trkpt lat="42.41398" lon="0.14036">
        <ele>532.3</ele>
        <time>2017-07-02T09:28:29Z</time>
      </trkpt>
      <trkpt lat="42.41392" lon="0.14037">
        <ele>531.4</ele>
        <time>2017-07-02T09:28:30Z</time>
      </trkpt>
      <trkpt lat="42.41385" lon="0.14035">
        <ele>530.5</ele>
        <time>2017-07-02T09:28:31Z</time>
      </trkpt>
      <trkpt lat="42.41383" lon="0.14037">
        <ele>530.1</ele>
        <time>2017-07-02T09:28:32Z</time>
      </trkpt>
      <trkpt lat="42.41378" lon="0.14036">
        <ele>529.4</ele>
        <time>2017-07-02T09:28:33Z</time>
      </trkpt>
      <trkpt lat="42.41373" lon="0.14038">
        <ele>528.8</ele>
        <time>2017-07-02T09:28:34Z</time>
      </trkpt>
      <trkpt lat="42.4137" lon="0.14037">
        <ele>528.2</ele>
        <time>2017-07-02T09:28:35Z</time>
      </trkpt>
      <trkpt lat="42.41366" lon="0.14038">
        <ele>528</ele>
        <time>2017-07-02T09:28:36Z</time>
      </trkpt>
      <trkpt lat="42.41362" lon="0.14039">
        <ele>528.1</ele>
        <time>2017-07-02T09:28:37Z</time>
      </trkpt>
      <trkpt lat="42.41357" lon="0.14039">
        <ele>528.2</ele>
        <time>2017-07-02T09:28:38Z</time>
      </trkpt>
      <trkpt lat="42.41353" lon="0.14038">
        <ele>528.4</ele>
        <time>2017-07-02T09:28:39Z</time>
      </trkpt>
      <trkpt lat="42.41348" lon="0.14039">
        <ele>528.6</ele>
        <time>2017-07-02T09:28:40Z</time>
      </trkpt>
      <trkpt lat="42.41343" lon="0.1404">
        <ele>528.8</ele>
        <time>2017-07-02T09:28:41Z</time>
      </trkpt>
      <trkpt lat="42.41337" lon="0.14038">
        <ele>529</ele>
        <time>2017-07-02T09:28:42Z</time>
      </trkpt>
      <trkpt lat="42.41333" lon="0.14036">
        <ele>529.2</ele>
        <time>2017-07-02T09:28:43Z</time>
      </trkpt>
      <trkpt lat="42.41329" lon="0.14036">
        <ele>529.4</ele>
        <time>2017-07-02T09:28:44Z</time>
      </trkpt>
      <trkpt lat="42.41324" lon="0.14037">
        <ele>529.6</ele>
        <time>2017-07-02T09:28:45Z</time>
      </trkpt>
      <trkpt lat="42.41319" lon="0.14038">
        <ele>529.9</ele>
        <time>2017-07-02T09:28:46Z</time>
      </trkpt>
      <trkpt lat="42.41314" lon="0.14039">
        <ele>530.1</ele>
        <time>2017-07-02T09:28:47Z</time>
      </trkpt>
      <trkpt lat="42.4131" lon="0.14041">
        <ele>530.4</ele>
        <time>2017-07-02T09:28:48Z</time>
      </trkpt>
      <trkpt lat="42.41304" lon="0.14041">
        <ele>530.8</ele>
        <time>2017-07-02T09:28:49Z</time>
      </trkpt>
      <trkpt lat="42.413" lon="0.14042">
        <ele>531.1</ele>
        <time>2017-07-02T09:28:50Z</time>
      </trkpt>
      <trkpt lat="42.41295" lon="0.1404">
        <ele>531.5</ele>
        <time>2017-07-02T09:28:51Z</time>
      </trkpt>
      <trkpt lat="42.41288" lon="0.14039">
        <ele>532</ele>
        <time>2017-07-02T09:28:52Z</time>
      </trkpt>
      <trkpt lat="42.41283" lon="0.1404">
        <ele>532.2</ele>
        <time>2017-07-02T09:28:53Z</time>
      </trkpt>
      <trkpt lat="42.41278" lon="0.14041">
        <ele>532.4</ele>
        <time>2017-07-02T09:28:54Z</time>
      </trkpt>
      <trkpt lat="42.41273" lon="0.14041">
        <ele>532.7</ele>
        <time>2017-07-02T09:28:55Z</time>
      </trkpt>
      <trkpt lat="42.41268" lon="0.1404">
        <ele>533</ele>
        <time>2017-07-02T09:28:56Z</time>
      </trkpt>
      <trkpt lat="42.41263" lon="0.14037">
        <ele>533</ele>
        <time>2017-07-02T09:28:57Z</time>
      </trkpt>
      <trkpt lat="42.41261" lon="0.14034">
        <ele>533</ele>
        <time>2017-07-02T09:28:58Z</time>
      </trkpt>
      <trkpt lat="42.41258" lon="0.14032">
        <ele>533</ele>
        <time>2017-07-02T09:28:59Z</time>
      </trkpt>
      <trkpt lat="42.41254" lon="0.14031">
        <ele>533.3</ele>
        <time>2017-07-02T09:29:00Z</time>
      </trkpt>
      <trkpt lat="42.4125" lon="0.1403">
        <ele>533.7</ele>
        <time>2017-07-02T09:29:01Z</time>
      </trkpt>
      <trkpt lat="42.41246" lon="0.14033">
        <ele>534.2</ele>
        <time>2017-07-02T09:29:02Z</time>
      </trkpt>
      <trkpt lat="42.41244" lon="0.14038">
        <ele>537</ele>
        <time>2017-07-02T09:29:03Z</time>
      </trkpt>
      <trkpt lat="42.41241" lon="0.14044">
        <ele>537</ele>
        <time>2017-07-02T09:29:04Z</time>
      </trkpt>
      <trkpt lat="42.41242" lon="0.14048">
        <ele>537</ele>
        <time>2017-07-02T09:29:05Z</time>
      </trkpt>
      <trkpt lat="42.41242" lon="0.14055">
        <ele>537</ele>
        <time>2017-07-02T09:29:06Z</time>
      </trkpt>
      <trkpt lat="42.41242" lon="0.14058">
        <ele>537</ele>
        <time>2017-07-02T09:29:07Z</time>
      </trkpt>
      <trkpt lat="42.41241" lon="0.14063">
        <ele>537</ele>
        <time>2017-07-02T09:29:08Z</time>
      </trkpt>
      <trkpt lat="42.41241" lon="0.14067">
        <ele>537</ele>
        <time>2017-07-02T09:29:09Z</time>
      </trkpt>
      <trkpt lat="42.41237" lon="0.14071">
        <ele>537</ele>
        <time>2017-07-02T09:29:11Z</time>
      </trkpt>
      <trkpt lat="42.41233" lon="0.14071">
        <ele>537.1</ele>
        <time>2017-07-02T09:29:13Z</time>
      </trkpt>
      <trkpt lat="42.41231" lon="0.1407">
        <ele>537.1</ele>
        <time>2017-07-02T09:29:15Z</time>
      </trkpt>
      <trkpt lat="42.41228" lon="0.1407">
        <ele>537.2</ele>
        <time>2017-07-02T09:29:17Z</time>
      </trkpt>
      <trkpt lat="42.41225" lon="0.1407">
        <ele>536.9</ele>
        <time>2017-07-02T09:29:19Z</time>
      </trkpt>
      <trkpt lat="42.41221" lon="0.14071">
        <ele>536.5</ele>
        <time>2017-07-02T09:29:21Z</time>
      </trkpt>
      <trkpt lat="42.41218" lon="0.14068">
        <ele>536.3</ele>
        <time>2017-07-02T09:29:23Z</time>
      </trkpt>
      <trkpt lat="42.41214" lon="0.14066">
        <ele>536.3</ele>
        <time>2017-07-02T09:29:26Z</time>
      </trkpt>
      <trkpt lat="42.4121" lon="0.14064">
        <ele>536.3</ele>
        <time>2017-07-02T09:29:29Z</time>
      </trkpt>
      <trkpt lat="42.41207" lon="0.14064">
        <ele>536.3</ele>
        <time>2017-07-02T09:29:31Z</time>
      </trkpt>
      <trkpt lat="42.41202" lon="0.14064">
        <ele>536.2</ele>
        <time>2017-07-02T09:29:33Z</time>
      </trkpt>
      <trkpt lat="42.41198" lon="0.14064">
        <ele>536.2</ele>
        <time>2017-07-02T09:29:35Z</time>
      </trkpt>
      <trkpt lat="42.41192" lon="0.14063">
        <ele>536.3</ele>
        <time>2017-07-02T09:29:37Z</time>
      </trkpt>
      <trkpt lat="42.41188" lon="0.14063">
        <ele>536.9</ele>
        <time>2017-07-02T09:29:39Z</time>
      </trkpt>
      <trkpt lat="42.41184" lon="0.14063">
        <ele>537.4</ele>
        <time>2017-07-02T09:29:41Z</time>
      </trkpt>
      <trkpt lat="42.4118" lon="0.14062">
        <ele>538.1</ele>
        <time>2017-07-02T09:29:43Z</time>
      </trkpt>
      <trkpt lat="42.41176" lon="0.14061">
        <ele>538.8</ele>
        <time>2017-07-02T09:29:45Z</time>
      </trkpt>
      <trkpt lat="42.41173" lon="0.1406">
        <ele>539.2</ele>
        <time>2017-07-02T09:29:47Z</time>
      </trkpt>
      <trkpt lat="42.4117" lon="0.1406">
        <ele>539.7</ele>
        <time>2017-07-02T09:29:49Z</time>
      </trkpt>
      <trkpt lat="42.41167" lon="0.14059">
        <ele>540</ele>
        <time>2017-07-02T09:29:51Z</time>
      </trkpt>
      <trkpt lat="42.41163" lon="0.14058">
        <ele>540</ele>
        <time>2017-07-02T09:29:53Z</time>
      </trkpt>
      <trkpt lat="42.4116" lon="0.14057">
        <ele>539.9</ele>
        <time>2017-07-02T09:29:55Z</time>
      </trkpt>
      <trkpt lat="42.41156" lon="0.14057">
        <ele>540.3</ele>
        <time>2017-07-02T09:29:57Z</time>
      </trkpt>
      <trkpt lat="42.41153" lon="0.14058">
        <ele>540.8</ele>
        <time>2017-07-02T09:29:59Z</time>
      </trkpt>
      <trkpt lat="42.4115" lon="0.14058">
        <ele>541.2</ele>
        <time>2017-07-02T09:30:01Z</time>
      </trkpt>
      <trkpt lat="42.41147" lon="0.14058">
        <ele>541.6</ele>
        <time>2017-07-02T09:30:03Z</time>
      </trkpt>
      <trkpt lat="42.41143" lon="0.14058">
        <ele>542</ele>
        <time>2017-07-02T09:30:05Z</time>
      </trkpt>
      <trkpt lat="42.4114" lon="0.14059">
        <ele>542.3</ele>
        <time>2017-07-02T09:30:07Z</time>
      </trkpt>
      <trkpt lat="42.41137" lon="0.14061">
        <ele>542.6</ele>
        <time>2017-07-02T09:30:09Z</time>
      </trkpt>
      <trkpt lat="42.41134" lon="0.14063">
        <ele>542.9</ele>
        <time>2017-07-02T09:30:11Z</time>
      </trkpt>
      <trkpt lat="42.41131" lon="0.14064">
        <ele>543.7</ele>
        <time>2017-07-02T09:30:13Z</time>
      </trkpt>
      <trkpt lat="42.41128" lon="0.14065">
        <ele>544.5</ele>
        <time>2017-07-02T09:30:15Z</time>
      </trkpt>
      <trkpt lat="42.41125" lon="0.14063">
        <ele>545</ele>
        <time>2017-07-02T09:30:17Z</time>
      </trkpt>
      <trkpt lat="42.41121" lon="0.14061">
        <ele>544.7</ele>
        <time>2017-07-02T09:30:19Z</time>
      </trkpt>
      <trkpt lat="42.41119" lon="0.14059">
        <ele>544.6</ele>
        <time>2017-07-02T09:30:21Z</time>
      </trkpt>
      <trkpt lat="42.41116" lon="0.14058">
        <ele>544.4</ele>
        <time>2017-07-02T09:30:23Z</time>
      </trkpt>
      <trkpt lat="42.41113" lon="0.14057">
        <ele>544.4</ele>
        <time>2017-07-02T09:30:25Z</time>
      </trkpt>
      <trkpt lat="42.41109" lon="0.14056">
        <ele>544.8</ele>
        <time>2017-07-02T09:30:27Z</time>
      </trkpt>
      <trkpt lat="42.41106" lon="0.14056">
        <ele>545.2</ele>
        <time>2017-07-02T09:30:29Z</time>
      </trkpt>
      <trkpt lat="42.41103" lon="0.14057">
        <ele>545.7</ele>
        <time>2017-07-02T09:30:31Z</time>
      </trkpt>
      <trkpt lat="42.411" lon="0.14057">
        <ele>546.6</ele>
        <time>2017-07-02T09:30:33Z</time>
      </trkpt>
      <trkpt lat="42.41096" lon="0.14057">
        <ele>547.4</ele>
        <time>2017-07-02T09:30:35Z</time>
      </trkpt>
      <trkpt lat="42.41093" lon="0.14057">
        <ele>548.2</ele>
        <time>2017-07-02T09:30:37Z</time>
      </trkpt>
      <trkpt lat="42.4109" lon="0.14058">
        <ele>549.3</ele>
        <time>2017-07-02T09:30:40Z</time>
      </trkpt>
      <trkpt lat="42.41087" lon="0.1406">
        <ele>550</ele>
        <time>2017-07-02T09:30:42Z</time>
      </trkpt>
      <trkpt lat="42.41085" lon="0.14061">
        <ele>550.8</ele>
        <time>2017-07-02T09:30:44Z</time>
      </trkpt>
      <trkpt lat="42.41082" lon="0.1406">
        <ele>551.5</ele>
        <time>2017-07-02T09:30:46Z</time>
      </trkpt>
      <trkpt lat="42.41079" lon="0.1406">
        <ele>552.3</ele>
        <time>2017-07-02T09:30:48Z</time>
      </trkpt>
      <trkpt lat="42.41076" lon="0.14061">
        <ele>553.2</ele>
        <time>2017-07-02T09:30:50Z</time>
      </trkpt>
      <trkpt lat="42.41073" lon="0.14062">
        <ele>554.1</ele>
        <time>2017-07-02T09:30:52Z</time>
      </trkpt>
      <trkpt lat="42.4107" lon="0.14062">
        <ele>555.1</ele>
        <time>2017-07-02T09:30:54Z</time>
      </trkpt>
      <trkpt lat="42.41067" lon="0.14062">
        <ele>556.3</ele>
        <time>2017-07-02T09:30:56Z</time>
      </trkpt>
      <trkpt lat="42.41064" lon="0.14062">
        <ele>557.5</ele>
        <time>2017-07-02T09:30:58Z</time>
      </trkpt>
      <trkpt lat="42.41061" lon="0.14061">
        <ele>558.5</ele>
        <time>2017-07-02T09:31:00Z</time>
      </trkpt>
      <trkpt lat="42.41057" lon="0.14062">
        <ele>559.4</ele>
        <time>2017-07-02T09:31:02Z</time>
      </trkpt>
      <trkpt lat="42.41054" lon="0.14063">
        <ele>560.3</ele>
        <time>2017-07-02T09:31:04Z</time>
      </trkpt>
      <trkpt lat="42.41051" lon="0.14066">
        <ele>561.5</ele>
        <time>2017-07-02T09:31:06Z</time>
      </trkpt>
      <trkpt lat="42.41048" lon="0.14069">
        <ele>562.7</ele>
        <time>2017-07-02T09:31:08Z</time>
      </trkpt>
      <trkpt lat="42.41044" lon="0.1407">
        <ele>563.8</ele>
        <time>2017-07-02T09:31:10Z</time>
      </trkpt>
      <trkpt lat="42.4104" lon="0.14071">
        <ele>564.8</ele>
        <time>2017-07-02T09:31:12Z</time>
      </trkpt>
      <trkpt lat="42.41037" lon="0.14074">
        <ele>565.7</ele>
        <time>2017-07-02T09:31:14Z</time>
      </trkpt>
      <trkpt lat="42.41034" lon="0.14076">
        <ele>565.8</ele>
        <time>2017-07-02T09:31:16Z</time>
      </trkpt>
      <trkpt lat="42.4103" lon="0.14078">
        <ele>565.9</ele>
        <time>2017-07-02T09:31:18Z</time>
      </trkpt>
      <trkpt lat="42.41026" lon="0.14078">
        <ele>565.7</ele>
        <time>2017-07-02T09:31:20Z</time>
      </trkpt>
      <trkpt lat="42.41022" lon="0.14078">
        <ele>565.3</ele>
        <time>2017-07-02T09:31:22Z</time>
      </trkpt>
      <trkpt lat="42.41018" lon="0.14077">
        <ele>565.2</ele>
        <time>2017-07-02T09:31:24Z</time>
      </trkpt>
      <trkpt lat="42.41015" lon="0.14075">
        <ele>565.5</ele>
        <time>2017-07-02T09:31:26Z</time>
      </trkpt>
      <trkpt lat="42.41011" lon="0.14072">
        <ele>565.6</ele>
        <time>2017-07-02T09:31:28Z</time>
      </trkpt>
      <trkpt lat="42.41008" lon="0.1407">
        <ele>565.3</ele>
        <time>2017-07-02T09:31:30Z</time>
      </trkpt>
      <trkpt lat="42.41004" lon="0.14069">
        <ele>565.1</ele>
        <time>2017-07-02T09:31:32Z</time>
      </trkpt>
      <trkpt lat="42.41" lon="0.14067">
        <ele>564.9</ele>
        <time>2017-07-02T09:31:34Z</time>
      </trkpt>
      <trkpt lat="42.40997" lon="0.14064">
        <ele>564.9</ele>
        <time>2017-07-02T09:31:36Z</time>
      </trkpt>
      <trkpt lat="42.40993" lon="0.14061">
        <ele>565.3</ele>
        <time>2017-07-02T09:31:38Z</time>
      </trkpt>
      <trkpt lat="42.40989" lon="0.14059">
        <ele>565.7</ele>
        <time>2017-07-02T09:31:40Z</time>
      </trkpt>
      <trkpt lat="42.40984" lon="0.14057">
        <ele>566.1</ele>
        <time>2017-07-02T09:31:42Z</time>
      </trkpt>
      <trkpt lat="42.4098" lon="0.14054">
        <ele>566.5</ele>
        <time>2017-07-02T09:31:44Z</time>
      </trkpt>
      <trkpt lat="42.40976" lon="0.14052">
        <ele>566.8</ele>
        <time>2017-07-02T09:31:46Z</time>
      </trkpt>
      <trkpt lat="42.40971" lon="0.1405">
        <ele>567.4</ele>
        <time>2017-07-02T09:31:48Z</time>
      </trkpt>
      <trkpt lat="42.40967" lon="0.14048">
        <ele>568</ele>
        <time>2017-07-02T09:31:50Z</time>
      </trkpt>
      <trkpt lat="42.40963" lon="0.14046">
        <ele>568.5</ele>
        <time>2017-07-02T09:31:52Z</time>
      </trkpt>
      <trkpt lat="42.40959" lon="0.14046">
        <ele>568.8</ele>
        <time>2017-07-02T09:31:54Z</time>
      </trkpt>
      <trkpt lat="42.40954" lon="0.14046">
        <ele>568.9</ele>
        <time>2017-07-02T09:31:56Z</time>
      </trkpt>
      <trkpt lat="42.4095" lon="0.14046">
        <ele>569.3</ele>
        <time>2017-07-02T09:31:58Z</time>
      </trkpt>
      <trkpt lat="42.40946" lon="0.14046">
        <ele>569.7</ele>
        <time>2017-07-02T09:32:00Z</time>
      </trkpt>
      <trkpt lat="42.40942" lon="0.14045">
        <ele>569.6</ele>
        <time>2017-07-02T09:32:02Z</time>
      </trkpt>
      <trkpt lat="42.40938" lon="0.14045">
        <ele>569.5</ele>
        <time>2017-07-02T09:32:04Z</time>
      </trkpt>
      <trkpt lat="42.40935" lon="0.14043">
        <ele>569.7</ele>
        <time>2017-07-02T09:32:06Z</time>
      </trkpt>
      <trkpt lat="42.4093" lon="0.14041">
        <ele>570</ele>
        <time>2017-07-02T09:32:08Z</time>
      </trkpt>
      <trkpt lat="42.40925" lon="0.1404">
        <ele>570.1</ele>
        <time>2017-07-02T09:32:10Z</time>
      </trkpt>
      <trkpt lat="42.40923" lon="0.14039">
        <ele>570.1</ele>
        <time>2017-07-02T09:32:11Z</time>
      </trkpt>
      <trkpt lat="42.4092" lon="0.14038">
        <ele>570.1</ele>
        <time>2017-07-02T09:32:12Z</time>
      </trkpt>
      <trkpt lat="42.40917" lon="0.14037">
        <ele>570.1</ele>
        <time>2017-07-02T09:32:13Z</time>
      </trkpt>
      <trkpt lat="42.40912" lon="0.14036">
        <ele>570.4</ele>
        <time>2017-07-02T09:32:15Z</time>
      </trkpt>
      <trkpt lat="42.40907" lon="0.14035">
        <ele>570.7</ele>
        <time>2017-07-02T09:32:17Z</time>
      </trkpt>
      <trkpt lat="42.40902" lon="0.14034">
        <ele>571</ele>
        <time>2017-07-02T09:32:19Z</time>
      </trkpt>
      <trkpt lat="42.40898" lon="0.14032">
        <ele>571.2</ele>
        <time>2017-07-02T09:32:21Z</time>
      </trkpt>
      <trkpt lat="42.40893" lon="0.14028">
        <ele>571.7</ele>
        <time>2017-07-02T09:32:23Z</time>
      </trkpt>
      <trkpt lat="42.40891" lon="0.14026">
        <ele>571.9</ele>
        <time>2017-07-02T09:32:24Z</time>
      </trkpt>
      <trkpt lat="42.40888" lon="0.14024">
        <ele>572.1</ele>
        <time>2017-07-02T09:32:25Z</time>
      </trkpt>
      <trkpt lat="42.40886" lon="0.14022">
        <ele>572.3</ele>
        <time>2017-07-02T09:32:26Z</time>
      </trkpt>
      <trkpt lat="42.40883" lon="0.1402">
        <ele>572.5</ele>
        <time>2017-07-02T09:32:27Z</time>
      </trkpt>
      <trkpt lat="42.40881" lon="0.14019">
        <ele>572.5</ele>
        <time>2017-07-02T09:32:28Z</time>
      </trkpt>
      <trkpt lat="42.40878" lon="0.14017">
        <ele>572.6</ele>
        <time>2017-07-02T09:32:29Z</time>
      </trkpt>
      <trkpt lat="42.40875" lon="0.14016">
        <ele>572.5</ele>
        <time>2017-07-02T09:32:30Z</time>
      </trkpt>
      <trkpt lat="42.40873" lon="0.14015">
        <ele>572.4</ele>
        <time>2017-07-02T09:32:31Z</time>
      </trkpt>
      <trkpt lat="42.40867" lon="0.14014">
        <ele>572.2</ele>
        <time>2017-07-02T09:32:33Z</time>
      </trkpt>
      <trkpt lat="42.40862" lon="0.14013">
        <ele>572.1</ele>
        <time>2017-07-02T09:32:35Z</time>
      </trkpt>
      <trkpt lat="42.40858" lon="0.14013">
        <ele>572.7</ele>
        <time>2017-07-02T09:32:37Z</time>
      </trkpt>
      <trkpt lat="42.40853" lon="0.14014">
        <ele>574.2</ele>
        <time>2017-07-02T09:32:39Z</time>
      </trkpt>
      <trkpt lat="42.40849" lon="0.14018">
        <ele>575.5</ele>
        <time>2017-07-02T09:32:41Z</time>
      </trkpt>
      <trkpt lat="42.40847" lon="0.1402">
        <ele>576.2</ele>
        <time>2017-07-02T09:32:42Z</time>
      </trkpt>
      <trkpt lat="42.40844" lon="0.14023">
        <ele>577.2</ele>
        <time>2017-07-02T09:32:43Z</time>
      </trkpt>
      <trkpt lat="42.40843" lon="0.14026">
        <ele>578.2</ele>
        <time>2017-07-02T09:32:44Z</time>
      </trkpt>
      <trkpt lat="42.40841" lon="0.14029">
        <ele>579.3</ele>
        <time>2017-07-02T09:32:45Z</time>
      </trkpt>
      <trkpt lat="42.4084" lon="0.14033">
        <ele>579.9</ele>
        <time>2017-07-02T09:32:46Z</time>
      </trkpt>
      <trkpt lat="42.40838" lon="0.14036">
        <ele>580.6</ele>
        <time>2017-07-02T09:32:47Z</time>
      </trkpt>
      <trkpt lat="42.40836" lon="0.14039">
        <ele>581.2</ele>
        <time>2017-07-02T09:32:48Z</time>
      </trkpt>
      <trkpt lat="42.40833" lon="0.14041">
        <ele>581.9</ele>
        <time>2017-07-02T09:32:49Z</time>
      </trkpt>
      <trkpt lat="42.4083" lon="0.14042">
        <ele>582.5</ele>
        <time>2017-07-02T09:32:50Z</time>
      </trkpt>
      <trkpt lat="42.40827" lon="0.14044">
        <ele>583.4</ele>
        <time>2017-07-02T09:32:51Z</time>
      </trkpt>
      <trkpt lat="42.40824" lon="0.14045">
        <ele>584.3</ele>
        <time>2017-07-02T09:32:52Z</time>
      </trkpt>
      <trkpt lat="42.40821" lon="0.14046">
        <ele>585.1</ele>
        <time>2017-07-02T09:32:53Z</time>
      </trkpt>
      <trkpt lat="42.40817" lon="0.14047">
        <ele>585.9</ele>
        <time>2017-07-02T09:32:54Z</time>
      </trkpt>
      <trkpt lat="42.40814" lon="0.14049">
        <ele>586.7</ele>
        <time>2017-07-02T09:32:55Z</time>
      </trkpt>
      <trkpt lat="42.40811" lon="0.14051">
        <ele>587</ele>
        <time>2017-07-02T09:32:56Z</time>
      </trkpt>
      <trkpt lat="42.40809" lon="0.14054">
        <ele>587.3</ele>
        <time>2017-07-02T09:32:57Z</time>
      </trkpt>
      <trkpt lat="42.40806" lon="0.14055">
        <ele>587.7</ele>
        <time>2017-07-02T09:32:58Z</time>
      </trkpt>
      <trkpt lat="42.40804" lon="0.14057">
        <ele>588.3</ele>
        <time>2017-07-02T09:32:59Z</time>
      </trkpt>
      <trkpt lat="42.40801" lon="0.14059">
        <ele>588.8</ele>
        <time>2017-07-02T09:33:00Z</time>
      </trkpt>
      <trkpt lat="42.40797" lon="0.14062">
        <ele>589.7</ele>
        <time>2017-07-02T09:33:02Z</time>
      </trkpt>
      <trkpt lat="42.40792" lon="0.14065">
        <ele>590.8</ele>
        <time>2017-07-02T09:33:04Z</time>
      </trkpt>
      <trkpt lat="42.40787" lon="0.14067">
        <ele>591.7</ele>
        <time>2017-07-02T09:33:06Z</time>
      </trkpt>
      <trkpt lat="42.40783" lon="0.14068">
        <ele>592.5</ele>
        <time>2017-07-02T09:33:08Z</time>
      </trkpt>
      <trkpt lat="42.4078" lon="0.14068">
        <ele>592.9</ele>
        <time>2017-07-02T09:33:09Z</time>
      </trkpt>
      <trkpt lat="42.40777" lon="0.1407">
        <ele>593.2</ele>
        <time>2017-07-02T09:33:10Z</time>
      </trkpt>
      <trkpt lat="42.40775" lon="0.14071">
        <ele>593.6</ele>
        <time>2017-07-02T09:33:11Z</time>
      </trkpt>
      <trkpt lat="42.40772" lon="0.14073">
        <ele>593.7</ele>
        <time>2017-07-02T09:33:12Z</time>
      </trkpt>
      <trkpt lat="42.40769" lon="0.14075">
        <ele>593.8</ele>
        <time>2017-07-02T09:33:13Z</time>
      </trkpt>
      <trkpt lat="42.40766" lon="0.14076">
        <ele>593.9</ele>
        <time>2017-07-02T09:33:14Z</time>
      </trkpt>
      <trkpt lat="42.40761" lon="0.14078">
        <ele>594.2</ele>
        <time>2017-07-02T09:33:16Z</time>
      </trkpt>
      <trkpt lat="42.40756" lon="0.14079">
        <ele>594.3</ele>
        <time>2017-07-02T09:33:18Z</time>
      </trkpt>
      <trkpt lat="42.40751" lon="0.1408">
        <ele>594.2</ele>
        <time>2017-07-02T09:33:20Z</time>
      </trkpt>
      <trkpt lat="42.40746" lon="0.14081">
        <ele>594.3</ele>
        <time>2017-07-02T09:33:22Z</time>
      </trkpt>
      <trkpt lat="42.40742" lon="0.14082">
        <ele>594.4</ele>
        <time>2017-07-02T09:33:24Z</time>
      </trkpt>
      <trkpt lat="42.40737" lon="0.14083">
        <ele>594.3</ele>
        <time>2017-07-02T09:33:26Z</time>
      </trkpt>
      <trkpt lat="42.40732" lon="0.14083">
        <ele>594.5</ele>
        <time>2017-07-02T09:33:28Z</time>
      </trkpt>
      <trkpt lat="42.40729" lon="0.14083">
        <ele>594.7</ele>
        <time>2017-07-02T09:33:29Z</time>
      </trkpt>
      <trkpt lat="42.40726" lon="0.14083">
        <ele>594.9</ele>
        <time>2017-07-02T09:33:30Z</time>
      </trkpt>
      <trkpt lat="42.40723" lon="0.14084">
        <ele>595.1</ele>
        <time>2017-07-02T09:33:31Z</time>
      </trkpt>
      <trkpt lat="42.40718" lon="0.14086">
        <ele>595.6</ele>
        <time>2017-07-02T09:33:33Z</time>
      </trkpt>
      <trkpt lat="42.40713" lon="0.14089">
        <ele>596.2</ele>
        <time>2017-07-02T09:33:35Z</time>
      </trkpt>
      <trkpt lat="42.40711" lon="0.14091">
        <ele>596.5</ele>
        <time>2017-07-02T09:33:36Z</time>
      </trkpt>
      <trkpt lat="42.40706" lon="0.14094">
        <ele>597.4</ele>
        <time>2017-07-02T09:33:38Z</time>
      </trkpt>
      <trkpt lat="42.40701" lon="0.14098">
        <ele>598.5</ele>
        <time>2017-07-02T09:33:40Z</time>
      </trkpt>
      <trkpt lat="42.40697" lon="0.14101">
        <ele>599.1</ele>
        <time>2017-07-02T09:33:42Z</time>
      </trkpt>
      <trkpt lat="42.40692" lon="0.14104">
        <ele>599.6</ele>
        <time>2017-07-02T09:33:44Z</time>
      </trkpt>
      <trkpt lat="42.40688" lon="0.14107">
        <ele>600.1</ele>
        <time>2017-07-02T09:33:46Z</time>
      </trkpt>
      <trkpt lat="42.40684" lon="0.14109">
        <ele>600.6</ele>
        <time>2017-07-02T09:33:48Z</time>
      </trkpt>
      <trkpt lat="42.4068" lon="0.14111">
        <ele>601.1</ele>
        <time>2017-07-02T09:33:50Z</time>
      </trkpt>
      <trkpt lat="42.40675" lon="0.14113">
        <ele>601.7</ele>
        <time>2017-07-02T09:33:52Z</time>
      </trkpt>
      <trkpt lat="42.4067" lon="0.14115">
        <ele>601.1</ele>
        <time>2017-07-02T09:33:54Z</time>
      </trkpt>
      <trkpt lat="42.40665" lon="0.14117">
        <ele>600.2</ele>
        <time>2017-07-02T09:33:56Z</time>
      </trkpt>
      <trkpt lat="42.40662" lon="0.14118">
        <ele>600.3</ele>
        <time>2017-07-02T09:33:57Z</time>
      </trkpt>
      <trkpt lat="42.40659" lon="0.14118">
        <ele>600.6</ele>
        <time>2017-07-02T09:33:58Z</time>
      </trkpt>
      <trkpt lat="42.40656" lon="0.14119">
        <ele>600.9</ele>
        <time>2017-07-02T09:33:59Z</time>
      </trkpt>
      <trkpt lat="42.40651" lon="0.14118">
        <ele>601.4</ele>
        <time>2017-07-02T09:34:01Z</time>
      </trkpt>
      <trkpt lat="42.40646" lon="0.14117">
        <ele>601.6</ele>
        <time>2017-07-02T09:34:03Z</time>
      </trkpt>
      <trkpt lat="42.40641" lon="0.14116">
        <ele>601.6</ele>
        <time>2017-07-02T09:34:05Z</time>
      </trkpt>
      <trkpt lat="42.40637" lon="0.14115">
        <ele>601.4</ele>
        <time>2017-07-02T09:34:07Z</time>
      </trkpt>
      <trkpt lat="42.40632" lon="0.14115">
        <ele>601.4</ele>
        <time>2017-07-02T09:34:09Z</time>
      </trkpt>
      <trkpt lat="42.40628" lon="0.14114">
        <ele>601.4</ele>
        <time>2017-07-02T09:34:11Z</time>
      </trkpt>
      <trkpt lat="42.40623" lon="0.14112">
        <ele>601.4</ele>
        <time>2017-07-02T09:34:13Z</time>
      </trkpt>
      <trkpt lat="42.40618" lon="0.1411">
        <ele>601.4</ele>
        <time>2017-07-02T09:34:15Z</time>
      </trkpt>
      <trkpt lat="42.40613" lon="0.14109">
        <ele>601.4</ele>
        <time>2017-07-02T09:34:17Z</time>
      </trkpt>
      <trkpt lat="42.40608" lon="0.14107">
        <ele>601.4</ele>
        <time>2017-07-02T09:34:19Z</time>
      </trkpt>
      <trkpt lat="42.40603" lon="0.14105">
        <ele>601.5</ele>
        <time>2017-07-02T09:34:21Z</time>
      </trkpt>
      <trkpt lat="42.40598" lon="0.14104">
        <ele>601.8</ele>
        <time>2017-07-02T09:34:23Z</time>
      </trkpt>
      <trkpt lat="42.40593" lon="0.14102">
        <ele>602</ele>
        <time>2017-07-02T09:34:25Z</time>
      </trkpt>
      <trkpt lat="42.40588" lon="0.14101">
        <ele>602.3</ele>
        <time>2017-07-02T09:34:27Z</time>
      </trkpt>
      <trkpt lat="42.40585" lon="0.141">
        <ele>602.3</ele>
        <time>2017-07-02T09:34:28Z</time>
      </trkpt>
      <trkpt lat="42.4058" lon="0.14099">
        <ele>602.5</ele>
        <time>2017-07-02T09:34:30Z</time>
      </trkpt>
      <trkpt lat="42.40575" lon="0.14099">
        <ele>602.5</ele>
        <time>2017-07-02T09:34:32Z</time>
      </trkpt>
      <trkpt lat="42.40572" lon="0.14099">
        <ele>602.5</ele>
        <time>2017-07-02T09:34:33Z</time>
      </trkpt>
      <trkpt lat="42.40569" lon="0.14099">
        <ele>602.4</ele>
        <time>2017-07-02T09:34:34Z</time>
      </trkpt>
      <trkpt lat="42.40566" lon="0.14099">
        <ele>602.4</ele>
        <time>2017-07-02T09:34:35Z</time>
      </trkpt>
      <trkpt lat="42.40563" lon="0.141">
        <ele>602.3</ele>
        <time>2017-07-02T09:34:36Z</time>
      </trkpt>
      <trkpt lat="42.40561" lon="0.141">
        <ele>602.3</ele>
        <time>2017-07-02T09:34:37Z</time>
      </trkpt>
      <trkpt lat="42.40558" lon="0.14101">
        <ele>602.3</ele>
        <time>2017-07-02T09:34:38Z</time>
      </trkpt>
      <trkpt lat="42.40555" lon="0.14101">
        <ele>602.4</ele>
        <time>2017-07-02T09:34:39Z</time>
      </trkpt>
      <trkpt lat="42.40552" lon="0.14101">
        <ele>602.4</ele>
        <time>2017-07-02T09:34:40Z</time>
      </trkpt>
      <trkpt lat="42.40549" lon="0.14101">
        <ele>602.6</ele>
        <time>2017-07-02T09:34:41Z</time>
      </trkpt>
      <trkpt lat="42.40546" lon="0.14101">
        <ele>602.7</ele>
        <time>2017-07-02T09:34:42Z</time>
      </trkpt>
      <trkpt lat="42.40543" lon="0.14101">
        <ele>602.8</ele>
        <time>2017-07-02T09:34:43Z</time>
      </trkpt>
      <trkpt lat="42.4054" lon="0.14101">
        <ele>603</ele>
        <time>2017-07-02T09:34:44Z</time>
      </trkpt>
      <trkpt lat="42.40535" lon="0.141">
        <ele>603.2</ele>
        <time>2017-07-02T09:34:46Z</time>
      </trkpt>
      <trkpt lat="42.4053" lon="0.141">
        <ele>603.4</ele>
        <time>2017-07-02T09:34:48Z</time>
      </trkpt>
      <trkpt lat="42.40526" lon="0.14101">
        <ele>603.6</ele>
        <time>2017-07-02T09:34:50Z</time>
      </trkpt>
      <trkpt lat="42.40521" lon="0.14101">
        <ele>603.7</ele>
        <time>2017-07-02T09:34:52Z</time>
      </trkpt>
      <trkpt lat="42.40516" lon="0.141">
        <ele>603.8</ele>
        <time>2017-07-02T09:34:54Z</time>
      </trkpt>
      <trkpt lat="42.4051" lon="0.14101">
        <ele>604</ele>
        <time>2017-07-02T09:34:56Z</time>
      </trkpt>
      <trkpt lat="42.40508" lon="0.14101">
        <ele>604.1</ele>
        <time>2017-07-02T09:34:57Z</time>
      </trkpt>
      <trkpt lat="42.40505" lon="0.14101">
        <ele>604.2</ele>
        <time>2017-07-02T09:34:58Z</time>
      </trkpt>
      <trkpt lat="42.40502" lon="0.14102">
        <ele>604.4</ele>
        <time>2017-07-02T09:34:59Z</time>
      </trkpt>
      <trkpt lat="42.40499" lon="0.14103">
        <ele>604.6</ele>
        <time>2017-07-02T09:35:00Z</time>
      </trkpt>
      <trkpt lat="42.40495" lon="0.14103">
        <ele>604.9</ele>
        <time>2017-07-02T09:35:01Z</time>
      </trkpt>
      <trkpt lat="42.40492" lon="0.14104">
        <ele>605.2</ele>
        <time>2017-07-02T09:35:02Z</time>
      </trkpt>
      <trkpt lat="42.40489" lon="0.14104">
        <ele>605.5</ele>
        <time>2017-07-02T09:35:03Z</time>
      </trkpt>
      <trkpt lat="42.40486" lon="0.14104">
        <ele>605.8</ele>
        <time>2017-07-02T09:35:04Z</time>
      </trkpt>
      <trkpt lat="42.40483" lon="0.14105">
        <ele>606.2</ele>
        <time>2017-07-02T09:35:05Z</time>
      </trkpt>
      <trkpt lat="42.4048" lon="0.14105">
        <ele>606.4</ele>
        <time>2017-07-02T09:35:06Z</time>
      </trkpt>
      <trkpt lat="42.40476" lon="0.14106">
        <ele>606.6</ele>
        <time>2017-07-02T09:35:07Z</time>
      </trkpt>
      <trkpt lat="42.40473" lon="0.14107">
        <ele>606.9</ele>
        <time>2017-07-02T09:35:08Z</time>
      </trkpt>
      <trkpt lat="42.40469" lon="0.14108">
        <ele>607.2</ele>
        <time>2017-07-02T09:35:09Z</time>
      </trkpt>
      <trkpt lat="42.40466" lon="0.14109">
        <ele>607.5</ele>
        <time>2017-07-02T09:35:10Z</time>
      </trkpt>
      <trkpt lat="42.40462" lon="0.1411">
        <ele>607.5</ele>
        <time>2017-07-02T09:35:11Z</time>
      </trkpt>
      <trkpt lat="42.40459" lon="0.14111">
        <ele>607.6</ele>
        <time>2017-07-02T09:35:12Z</time>
      </trkpt>
      <trkpt lat="42.40456" lon="0.14112">
        <ele>607.6</ele>
        <time>2017-07-02T09:35:13Z</time>
      </trkpt>
      <trkpt lat="42.40452" lon="0.14113">
        <ele>607.5</ele>
        <time>2017-07-02T09:35:14Z</time>
      </trkpt>
      <trkpt lat="42.40449" lon="0.14113">
        <ele>607.5</ele>
        <time>2017-07-02T09:35:15Z</time>
      </trkpt>
      <trkpt lat="42.40446" lon="0.14114">
        <ele>607.3</ele>
        <time>2017-07-02T09:35:16Z</time>
      </trkpt>
      <trkpt lat="42.40442" lon="0.14115">
        <ele>607.1</ele>
        <time>2017-07-02T09:35:17Z</time>
      </trkpt>
      <trkpt lat="42.40439" lon="0.14116">
        <ele>606.9</ele>
        <time>2017-07-02T09:35:18Z</time>
      </trkpt>
      <trkpt lat="42.40436" lon="0.14118">
        <ele>606.7</ele>
        <time>2017-07-02T09:35:19Z</time>
      </trkpt>
      <trkpt lat="42.40432" lon="0.14119">
        <ele>606.4</ele>
        <time>2017-07-02T09:35:20Z</time>
      </trkpt>
      <trkpt lat="42.40429" lon="0.1412">
        <ele>606</ele>
        <time>2017-07-02T09:35:21Z</time>
      </trkpt>
      <trkpt lat="42.40426" lon="0.14121">
        <ele>605.6</ele>
        <time>2017-07-02T09:35:22Z</time>
      </trkpt>
      <trkpt lat="42.40422" lon="0.14122">
        <ele>605.2</ele>
        <time>2017-07-02T09:35:23Z</time>
      </trkpt>
      <trkpt lat="42.40419" lon="0.14123">
        <ele>604.8</ele>
        <time>2017-07-02T09:35:24Z</time>
      </trkpt>
      <trkpt lat="42.40416" lon="0.14124">
        <ele>604.5</ele>
        <time>2017-07-02T09:35:25Z</time>
      </trkpt>
      <trkpt lat="42.40412" lon="0.14126">
        <ele>604.2</ele>
        <time>2017-07-02T09:35:26Z</time>
      </trkpt>
      <trkpt lat="42.40409" lon="0.14127">
        <ele>603.9</ele>
        <time>2017-07-02T09:35:27Z</time>
      </trkpt>
      <trkpt lat="42.40406" lon="0.14129">
        <ele>603.6</ele>
        <time>2017-07-02T09:35:28Z</time>
      </trkpt>
      <trkpt lat="42.40402" lon="0.1413">
        <ele>603.2</ele>
        <time>2017-07-02T09:35:29Z</time>
      </trkpt>
      <trkpt lat="42.40399" lon="0.14132">
        <ele>602.8</ele>
        <time>2017-07-02T09:35:30Z</time>
      </trkpt>
      <trkpt lat="42.40396" lon="0.14134">
        <ele>602.4</ele>
        <time>2017-07-02T09:35:31Z</time>
      </trkpt>
      <trkpt lat="42.40393" lon="0.14135">
        <ele>602</ele>
        <time>2017-07-02T09:35:32Z</time>
      </trkpt>
      <trkpt lat="42.40389" lon="0.14137">
        <ele>601.7</ele>
        <time>2017-07-02T09:35:33Z</time>
      </trkpt>
      <trkpt lat="42.40386" lon="0.14138">
        <ele>601.5</ele>
        <time>2017-07-02T09:35:34Z</time>
      </trkpt>
      <trkpt lat="42.40383" lon="0.14139">
        <ele>601.3</ele>
        <time>2017-07-02T09:35:35Z</time>
      </trkpt>
      <trkpt lat="42.4038" lon="0.14141">
        <ele>601.1</ele>
        <time>2017-07-02T09:35:36Z</time>
      </trkpt>
      <trkpt lat="42.40376" lon="0.14143">
        <ele>601</ele>
        <time>2017-07-02T09:35:37Z</time>
      </trkpt>
      <trkpt lat="42.40373" lon="0.14145">
        <ele>600.8</ele>
        <time>2017-07-02T09:35:38Z</time>
      </trkpt>
      <trkpt lat="42.40369" lon="0.14148">
        <ele>600.7</ele>
        <time>2017-07-02T09:35:39Z</time>
      </trkpt>
      <trkpt lat="42.40365" lon="0.14152">
        <ele>600.5</ele>
        <time>2017-07-02T09:35:40Z</time>
      </trkpt>
      <trkpt lat="42.40361" lon="0.14157">
        <ele>600.3</ele>
        <time>2017-07-02T09:35:41Z</time>
      </trkpt>
      <trkpt lat="42.40356" lon="0.14161">
        <ele>600.5</ele>
        <time>2017-07-02T09:35:42Z</time>
      </trkpt>
      <trkpt lat="42.40351" lon="0.14166">
        <ele>601.1</ele>
        <time>2017-07-02T09:35:43Z</time>
      </trkpt>
      <trkpt lat="42.40346" lon="0.1417">
        <ele>602</ele>
        <time>2017-07-02T09:35:44Z</time>
      </trkpt>
      <trkpt lat="42.4034" lon="0.14173">
        <ele>603.2</ele>
        <time>2017-07-02T09:35:45Z</time>
      </trkpt>
      <trkpt lat="42.40335" lon="0.14176">
        <ele>604.3</ele>
        <time>2017-07-02T09:35:46Z</time>
      </trkpt>
      <trkpt lat="42.4033" lon="0.14178">
        <ele>604.9</ele>
        <time>2017-07-02T09:35:47Z</time>
      </trkpt>
      <trkpt lat="42.40326" lon="0.14178">
        <ele>605.3</ele>
        <time>2017-07-02T09:35:48Z</time>
      </trkpt>
      <trkpt lat="42.40322" lon="0.14178">
        <ele>605.6</ele>
        <time>2017-07-02T09:35:49Z</time>
      </trkpt>
      <trkpt lat="42.40319" lon="0.14177">
        <ele>605.7</ele>
        <time>2017-07-02T09:35:50Z</time>
      </trkpt>
      <trkpt lat="42.40315" lon="0.14175">
        <ele>605.6</ele>
        <time>2017-07-02T09:35:52Z</time>
      </trkpt>
      <trkpt lat="42.40311" lon="0.14174">
        <ele>605.8</ele>
        <time>2017-07-02T09:35:54Z</time>
      </trkpt>
      <trkpt lat="42.40308" lon="0.14173">
        <ele>606.1</ele>
        <time>2017-07-02T09:35:56Z</time>
      </trkpt>
      <trkpt lat="42.40305" lon="0.14171">
        <ele>606.5</ele>
        <time>2017-07-02T09:35:59Z</time>
      </trkpt>
      <trkpt lat="42.40296" lon="0.14173">
        <ele>608.2</ele>
        <time>2017-07-02T09:36:55Z</time>
      </trkpt>
      <trkpt lat="42.40293" lon="0.14174">
        <ele>609</ele>
        <time>2017-07-02T09:36:56Z</time>
      </trkpt>
      <trkpt lat="42.4029" lon="0.14176">
        <ele>609.6</ele>
        <time>2017-07-02T09:36:57Z</time>
      </trkpt>
      <trkpt lat="42.40287" lon="0.14177">
        <ele>610.2</ele>
        <time>2017-07-02T09:36:58Z</time>
      </trkpt>
      <trkpt lat="42.40284" lon="0.14179">
        <ele>610.5</ele>
        <time>2017-07-02T09:36:59Z</time>
      </trkpt>
      <trkpt lat="42.40281" lon="0.14181">
        <ele>610.8</ele>
        <time>2017-07-02T09:37:00Z</time>
      </trkpt>
      <trkpt lat="42.40278" lon="0.14182">
        <ele>611</ele>
        <time>2017-07-02T09:37:01Z</time>
      </trkpt>
      <trkpt lat="42.40274" lon="0.14185">
        <ele>611.4</ele>
        <time>2017-07-02T09:37:03Z</time>
      </trkpt>
      <trkpt lat="42.40269" lon="0.14186">
        <ele>611.5</ele>
        <time>2017-07-02T09:37:05Z</time>
      </trkpt>
      <trkpt lat="42.40265" lon="0.14185">
        <ele>611.7</ele>
        <time>2017-07-02T09:37:07Z</time>
      </trkpt>
      <trkpt lat="42.40261" lon="0.14185">
        <ele>612</ele>
        <time>2017-07-02T09:37:09Z</time>
      </trkpt>
      <trkpt lat="42.40257" lon="0.14185">
        <ele>612.3</ele>
        <time>2017-07-02T09:37:11Z</time>
      </trkpt>
      <trkpt lat="42.40253" lon="0.14182">
        <ele>612.6</ele>
        <time>2017-07-02T09:37:14Z</time>
      </trkpt>
      <trkpt lat="42.40252" lon="0.14174">
        <ele>614.4</ele>
        <time>2017-07-02T09:37:16Z</time>
      </trkpt>
      <trkpt lat="42.40252" lon="0.14167">
        <ele>616</ele>
        <time>2017-07-02T09:37:18Z</time>
      </trkpt>
      <trkpt lat="42.40251" lon="0.14161">
        <ele>618.3</ele>
        <time>2017-07-02T09:37:20Z</time>
      </trkpt>
      <trkpt lat="42.40251" lon="0.14155">
        <ele>620.5</ele>
        <time>2017-07-02T09:37:22Z</time>
      </trkpt>
      <trkpt lat="42.4025" lon="0.14148">
        <ele>623.2</ele>
        <time>2017-07-02T09:37:24Z</time>
      </trkpt>
      <trkpt lat="42.4025" lon="0.14142">
        <ele>624.6</ele>
        <time>2017-07-02T09:37:26Z</time>
      </trkpt>
      <trkpt lat="42.40249" lon="0.14137">
        <ele>626.4</ele>
        <time>2017-07-02T09:37:28Z</time>
      </trkpt>
      <trkpt lat="42.40249" lon="0.14131">
        <ele>627.9</ele>
        <time>2017-07-02T09:37:30Z</time>
      </trkpt>
      <trkpt lat="42.40249" lon="0.14125">
        <ele>628.9</ele>
        <time>2017-07-02T09:37:32Z</time>
      </trkpt>
      <trkpt lat="42.40248" lon="0.14121">
        <ele>629.4</ele>
        <time>2017-07-02T09:37:34Z</time>
      </trkpt>
      <trkpt lat="42.40247" lon="0.14116">
        <ele>629.8</ele>
        <time>2017-07-02T09:37:36Z</time>
      </trkpt>
      <trkpt lat="42.40246" lon="0.14112">
        <ele>630.3</ele>
        <time>2017-07-02T09:37:38Z</time>
      </trkpt>
      <trkpt lat="42.40245" lon="0.14108">
        <ele>630.8</ele>
        <time>2017-07-02T09:37:40Z</time>
      </trkpt>
      <trkpt lat="42.40243" lon="0.14103">
        <ele>631.4</ele>
        <time>2017-07-02T09:37:42Z</time>
      </trkpt>
      <trkpt lat="42.40242" lon="0.14098">
        <ele>631.9</ele>
        <time>2017-07-02T09:37:44Z</time>
      </trkpt>
      <trkpt lat="42.40241" lon="0.14093">
        <ele>632.7</ele>
        <time>2017-07-02T09:37:46Z</time>
      </trkpt>
      <trkpt lat="42.40239" lon="0.14089">
        <ele>634</ele>
        <time>2017-07-02T09:37:48Z</time>
      </trkpt>
      <trkpt lat="42.40236" lon="0.14084">
        <ele>635</ele>
        <time>2017-07-02T09:37:50Z</time>
      </trkpt>
      <trkpt lat="42.40234" lon="0.1408">
        <ele>635.6</ele>
        <time>2017-07-02T09:37:52Z</time>
      </trkpt>
      <trkpt lat="42.40231" lon="0.14075">
        <ele>636.3</ele>
        <time>2017-07-02T09:37:54Z</time>
      </trkpt>
      <trkpt lat="42.40229" lon="0.1407">
        <ele>636.9</ele>
        <time>2017-07-02T09:37:56Z</time>
      </trkpt>
      <trkpt lat="42.40227" lon="0.14067">
        <ele>637.2</ele>
        <time>2017-07-02T09:37:58Z</time>
      </trkpt>
      <trkpt lat="42.40224" lon="0.14064">
        <ele>637.7</ele>
        <time>2017-07-02T09:38:00Z</time>
      </trkpt>
      <trkpt lat="42.4022" lon="0.14059">
        <ele>638</ele>
        <time>2017-07-02T09:38:02Z</time>
      </trkpt>
      <trkpt lat="42.40218" lon="0.14056">
        <ele>638.2</ele>
        <time>2017-07-02T09:38:03Z</time>
      </trkpt>
      <trkpt lat="42.40214" lon="0.14054">
        <ele>638.4</ele>
        <time>2017-07-02T09:38:04Z</time>
      </trkpt>
      <trkpt lat="42.4021" lon="0.14053">
        <ele>638.7</ele>
        <time>2017-07-02T09:38:05Z</time>
      </trkpt>
      <trkpt lat="42.40205" lon="0.14052">
        <ele>638.9</ele>
        <time>2017-07-02T09:38:06Z</time>
      </trkpt>
      <trkpt lat="42.40199" lon="0.14051">
        <ele>639.2</ele>
        <time>2017-07-02T09:38:07Z</time>
      </trkpt>
      <trkpt lat="42.40194" lon="0.14049">
        <ele>639.6</ele>
        <time>2017-07-02T09:38:08Z</time>
      </trkpt>
      <trkpt lat="42.4019" lon="0.14046">
        <ele>639.9</ele>
        <time>2017-07-02T09:38:09Z</time>
      </trkpt>
      <trkpt lat="42.40186" lon="0.14042">
        <ele>640.2</ele>
        <time>2017-07-02T09:38:10Z</time>
      </trkpt>
      <trkpt lat="42.40183" lon="0.14038">
        <ele>640.4</ele>
        <time>2017-07-02T09:38:11Z</time>
      </trkpt>
      <trkpt lat="42.40182" lon="0.14034">
        <ele>640.8</ele>
        <time>2017-07-02T09:38:12Z</time>
      </trkpt>
      <trkpt lat="42.4018" lon="0.14031">
        <ele>641</ele>
        <time>2017-07-02T09:38:13Z</time>
      </trkpt>
      <trkpt lat="42.40177" lon="0.14026">
        <ele>641.3</ele>
        <time>2017-07-02T09:38:15Z</time>
      </trkpt>
      <trkpt lat="42.40174" lon="0.14023">
        <ele>641.6</ele>
        <time>2017-07-02T09:38:17Z</time>
      </trkpt>
      <trkpt lat="42.4017" lon="0.14021">
        <ele>642</ele>
        <time>2017-07-02T09:38:19Z</time>
      </trkpt>
      <trkpt lat="42.40167" lon="0.14018">
        <ele>642.4</ele>
        <time>2017-07-02T09:38:21Z</time>
      </trkpt>
      <trkpt lat="42.40164" lon="0.14015">
        <ele>642.8</ele>
        <time>2017-07-02T09:38:23Z</time>
      </trkpt>
      <trkpt lat="42.4016" lon="0.14013">
        <ele>643.7</ele>
        <time>2017-07-02T09:38:25Z</time>
      </trkpt>
      <trkpt lat="42.40156" lon="0.14011">
        <ele>645</ele>
        <time>2017-07-02T09:38:27Z</time>
      </trkpt>
      <trkpt lat="42.40153" lon="0.14009">
        <ele>646.2</ele>
        <time>2017-07-02T09:38:29Z</time>
      </trkpt>
      <trkpt lat="42.40151" lon="0.14007">
        <ele>646.7</ele>
        <time>2017-07-02T09:38:33Z</time>
      </trkpt>
      <trkpt lat="42.40147" lon="0.14006">
        <ele>647.5</ele>
        <time>2017-07-02T09:38:36Z</time>
      </trkpt>
      <trkpt lat="42.40143" lon="0.14005">
        <ele>648.1</ele>
        <time>2017-07-02T09:38:38Z</time>
      </trkpt>
      <trkpt lat="42.4014" lon="0.14003">
        <ele>649</ele>
        <time>2017-07-02T09:38:40Z</time>
      </trkpt>
      <trkpt lat="42.40137" lon="0.14002">
        <ele>649.9</ele>
        <time>2017-07-02T09:38:42Z</time>
      </trkpt>
      <trkpt lat="42.40134" lon="0.14">
        <ele>651.2</ele>
        <time>2017-07-02T09:38:44Z</time>
      </trkpt>
      <trkpt lat="42.40131" lon="0.13998">
        <ele>652.7</ele>
        <time>2017-07-02T09:38:46Z</time>
      </trkpt>
      <trkpt lat="42.40128" lon="0.13995">
        <ele>654.1</ele>
        <time>2017-07-02T09:38:48Z</time>
      </trkpt>
      <trkpt lat="42.40124" lon="0.13993">
        <ele>654.7</ele>
        <time>2017-07-02T09:38:50Z</time>
      </trkpt>
      <trkpt lat="42.40121" lon="0.13991">
        <ele>655.3</ele>
        <time>2017-07-02T09:38:52Z</time>
      </trkpt>
      <trkpt lat="42.40118" lon="0.13989">
        <ele>655.9</ele>
        <time>2017-07-02T09:38:54Z</time>
      </trkpt>
      <trkpt lat="42.40114" lon="0.13987">
        <ele>657.4</ele>
        <time>2017-07-02T09:38:56Z</time>
      </trkpt>
      <trkpt lat="42.40112" lon="0.13983">
        <ele>658.5</ele>
        <time>2017-07-02T09:38:58Z</time>
      </trkpt>
      <trkpt lat="42.40109" lon="0.1398">
        <ele>659.3</ele>
        <time>2017-07-02T09:39:00Z</time>
      </trkpt>
      <trkpt lat="42.40107" lon="0.13977">
        <ele>660</ele>
        <time>2017-07-02T09:39:02Z</time>
      </trkpt>
      <trkpt lat="42.40104" lon="0.13975">
        <ele>661.1</ele>
        <time>2017-07-02T09:39:04Z</time>
      </trkpt>
      <trkpt lat="42.40101" lon="0.13974">
        <ele>662.7</ele>
        <time>2017-07-02T09:39:06Z</time>
      </trkpt>
      <trkpt lat="42.40098" lon="0.13973">
        <ele>663.9</ele>
        <time>2017-07-02T09:39:08Z</time>
      </trkpt>
      <trkpt lat="42.40095" lon="0.13972">
        <ele>664.7</ele>
        <time>2017-07-02T09:39:10Z</time>
      </trkpt>
      <trkpt lat="42.40092" lon="0.1397">
        <ele>665.5</ele>
        <time>2017-07-02T09:39:12Z</time>
      </trkpt>
      <trkpt lat="42.4009" lon="0.13968">
        <ele>666.8</ele>
        <time>2017-07-02T09:39:14Z</time>
      </trkpt>
      <trkpt lat="42.40088" lon="0.13966">
        <ele>668.3</ele>
        <time>2017-07-02T09:39:16Z</time>
      </trkpt>
      <trkpt lat="42.40085" lon="0.13965">
        <ele>669.6</ele>
        <time>2017-07-02T09:39:18Z</time>
      </trkpt>
      <trkpt lat="42.40083" lon="0.13961">
        <ele>670.6</ele>
        <time>2017-07-02T09:39:21Z</time>
      </trkpt>
      <trkpt lat="42.40082" lon="0.13956">
        <ele>672.2</ele>
        <time>2017-07-02T09:39:24Z</time>
      </trkpt>
      <trkpt lat="42.4008" lon="0.13952">
        <ele>675.1</ele>
        <time>2017-07-02T09:39:27Z</time>
      </trkpt>
      <trkpt lat="42.40078" lon="0.13949">
        <ele>675.4</ele>
        <time>2017-07-02T09:39:30Z</time>
      </trkpt>
      <trkpt lat="42.40075" lon="0.13949">
        <ele>676</ele>
        <time>2017-07-02T09:39:33Z</time>
      </trkpt>
      <trkpt lat="42.40071" lon="0.13948">
        <ele>676.7</ele>
        <time>2017-07-02T09:39:36Z</time>
      </trkpt>
      <trkpt lat="42.40068" lon="0.13949">
        <ele>677.2</ele>
        <time>2017-07-02T09:39:39Z</time>
      </trkpt>
      <trkpt lat="42.40067" lon="0.13953">
        <ele>677.8</ele>
        <time>2017-07-02T09:39:42Z</time>
      </trkpt>
      <trkpt lat="42.40065" lon="0.13956">
        <ele>678.5</ele>
        <time>2017-07-02T09:39:46Z</time>
      </trkpt>
      <trkpt lat="42.40063" lon="0.13959">
        <ele>679.1</ele>
        <time>2017-07-02T09:39:49Z</time>
      </trkpt>
      <trkpt lat="42.40062" lon="0.13963">
        <ele>679.6</ele>
        <time>2017-07-02T09:39:52Z</time>
      </trkpt>
      <trkpt lat="42.4006" lon="0.13968">
        <ele>680.4</ele>
        <time>2017-07-02T09:39:55Z</time>
      </trkpt>
      <trkpt lat="42.40058" lon="0.13971">
        <ele>680.7</ele>
        <time>2017-07-02T09:39:58Z</time>
      </trkpt>
      <trkpt lat="42.40056" lon="0.13973">
        <ele>681</ele>
        <time>2017-07-02T09:40:01Z</time>
      </trkpt>
      <trkpt lat="42.40053" lon="0.13975">
        <ele>681.4</ele>
        <time>2017-07-02T09:40:04Z</time>
      </trkpt>
      <trkpt lat="42.4005" lon="0.13977">
        <ele>682.1</ele>
        <time>2017-07-02T09:40:07Z</time>
      </trkpt>
      <trkpt lat="42.40047" lon="0.13977">
        <ele>682.6</ele>
        <time>2017-07-02T09:40:09Z</time>
      </trkpt>
      <trkpt lat="42.40044" lon="0.13979">
        <ele>683</ele>
        <time>2017-07-02T09:40:12Z</time>
      </trkpt>
      <trkpt lat="42.40041" lon="0.13982">
        <ele>683.6</ele>
        <time>2017-07-02T09:40:17Z</time>
      </trkpt>
      <trkpt lat="42.40037" lon="0.13983">
        <ele>684.3</ele>
        <time>2017-07-02T09:40:20Z</time>
      </trkpt>
      <trkpt lat="42.40034" lon="0.13983">
        <ele>684.7</ele>
        <time>2017-07-02T09:40:23Z</time>
      </trkpt>
      <trkpt lat="42.4003" lon="0.13983">
        <ele>685.4</ele>
        <time>2017-07-02T09:40:26Z</time>
      </trkpt>
      <trkpt lat="42.40027" lon="0.13985">
        <ele>685.7</ele>
        <time>2017-07-02T09:40:28Z</time>
      </trkpt>
      <trkpt lat="42.40024" lon="0.13987">
        <ele>686</ele>
        <time>2017-07-02T09:40:30Z</time>
      </trkpt>
      <trkpt lat="42.40021" lon="0.13989">
        <ele>686.1</ele>
        <time>2017-07-02T09:40:32Z</time>
      </trkpt>
      <trkpt lat="42.40018" lon="0.1399">
        <ele>686.3</ele>
        <time>2017-07-02T09:40:34Z</time>
      </trkpt>
      <trkpt lat="42.40015" lon="0.13989">
        <ele>686.4</ele>
        <time>2017-07-02T09:40:37Z</time>
      </trkpt>
      <trkpt lat="42.40012" lon="0.13988">
        <ele>686.8</ele>
        <time>2017-07-02T09:40:40Z</time>
      </trkpt>
      <trkpt lat="42.40008" lon="0.13989">
        <ele>687.3</ele>
        <time>2017-07-02T09:40:43Z</time>
      </trkpt>
      <trkpt lat="42.40006" lon="0.13991">
        <ele>687.6</ele>
        <time>2017-07-02T09:40:45Z</time>
      </trkpt>
      <trkpt lat="42.40003" lon="0.13993">
        <ele>687.9</ele>
        <time>2017-07-02T09:40:48Z</time>
      </trkpt>
      <trkpt lat="42.4" lon="0.13995">
        <ele>688.1</ele>
        <time>2017-07-02T09:40:52Z</time>
      </trkpt>
      <trkpt lat="42.39997" lon="0.13997">
        <ele>688.3</ele>
        <time>2017-07-02T09:40:55Z</time>
      </trkpt>
      <trkpt lat="42.39994" lon="0.14001">
        <ele>688.4</ele>
        <time>2017-07-02T09:40:58Z</time>
      </trkpt>
      <trkpt lat="42.39992" lon="0.14003">
        <ele>688.6</ele>
        <time>2017-07-02T09:41:00Z</time>
      </trkpt>
      <trkpt lat="42.3999" lon="0.14005">
        <ele>689</ele>
        <time>2017-07-02T09:41:02Z</time>
      </trkpt>
      <trkpt lat="42.39987" lon="0.14007">
        <ele>689.4</ele>
        <time>2017-07-02T09:41:04Z</time>
      </trkpt>
      <trkpt lat="42.39983" lon="0.14009">
        <ele>689.8</ele>
        <time>2017-07-02T09:41:06Z</time>
      </trkpt>
      <trkpt lat="42.39979" lon="0.14011">
        <ele>690.1</ele>
        <time>2017-07-02T09:41:08Z</time>
      </trkpt>
      <trkpt lat="42.39976" lon="0.14014">
        <ele>690.7</ele>
        <time>2017-07-02T09:41:10Z</time>
      </trkpt>
      <trkpt lat="42.39974" lon="0.14016">
        <ele>691.2</ele>
        <time>2017-07-02T09:41:12Z</time>
      </trkpt>
      <trkpt lat="42.39972" lon="0.14019">
        <ele>691.8</ele>
        <time>2017-07-02T09:41:14Z</time>
      </trkpt>
      <trkpt lat="42.39969" lon="0.14021">
        <ele>692.2</ele>
        <time>2017-07-02T09:41:16Z</time>
      </trkpt>
      <trkpt lat="42.39966" lon="0.14024">
        <ele>692.8</ele>
        <time>2017-07-02T09:41:18Z</time>
      </trkpt>
      <trkpt lat="42.39963" lon="0.14026">
        <ele>693.4</ele>
        <time>2017-07-02T09:41:20Z</time>
      </trkpt>
      <trkpt lat="42.39959" lon="0.14027">
        <ele>693.8</ele>
        <time>2017-07-02T09:41:22Z</time>
      </trkpt>
      <trkpt lat="42.39954" lon="0.14027">
        <ele>694.2</ele>
        <time>2017-07-02T09:41:24Z</time>
      </trkpt>
      <trkpt lat="42.3995" lon="0.14029">
        <ele>694.9</ele>
        <time>2017-07-02T09:41:26Z</time>
      </trkpt>
      <trkpt lat="42.39947" lon="0.1403">
        <ele>695.4</ele>
        <time>2017-07-02T09:41:28Z</time>
      </trkpt>
      <trkpt lat="42.39944" lon="0.14032">
        <ele>695.7</ele>
        <time>2017-07-02T09:41:30Z</time>
      </trkpt>
      <trkpt lat="42.39943" lon="0.14035">
        <ele>695.9</ele>
        <time>2017-07-02T09:41:32Z</time>
      </trkpt>
      <trkpt lat="42.39941" lon="0.14038">
        <ele>696.1</ele>
        <time>2017-07-02T09:41:34Z</time>
      </trkpt>
      <trkpt lat="42.39938" lon="0.14041">
        <ele>696.6</ele>
        <time>2017-07-02T09:41:36Z</time>
      </trkpt>
      <trkpt lat="42.39936" lon="0.14043">
        <ele>697</ele>
        <time>2017-07-02T09:41:38Z</time>
      </trkpt>
      <trkpt lat="42.39933" lon="0.14046">
        <ele>697.4</ele>
        <time>2017-07-02T09:41:40Z</time>
      </trkpt>
      <trkpt lat="42.3993" lon="0.14048">
        <ele>698</ele>
        <time>2017-07-02T09:41:42Z</time>
      </trkpt>
      <trkpt lat="42.39927" lon="0.14049">
        <ele>698.4</ele>
        <time>2017-07-02T09:41:44Z</time>
      </trkpt>
      <trkpt lat="42.39923" lon="0.14049">
        <ele>698.7</ele>
        <time>2017-07-02T09:41:47Z</time>
      </trkpt>
      <trkpt lat="42.3992" lon="0.14049">
        <ele>698.9</ele>
        <time>2017-07-02T09:41:49Z</time>
      </trkpt>
      <trkpt lat="42.39917" lon="0.14048">
        <ele>698.9</ele>
        <time>2017-07-02T09:41:51Z</time>
      </trkpt>
      <trkpt lat="42.39914" lon="0.14045">
        <ele>699</ele>
        <time>2017-07-02T09:41:53Z</time>
      </trkpt>
      <trkpt lat="42.39912" lon="0.14042">
        <ele>699.1</ele>
        <time>2017-07-02T09:41:55Z</time>
      </trkpt>
      <trkpt lat="42.39909" lon="0.1404">
        <ele>699.1</ele>
        <time>2017-07-02T09:41:57Z</time>
      </trkpt>
      <trkpt lat="42.39906" lon="0.14039">
        <ele>699.2</ele>
        <time>2017-07-02T09:41:59Z</time>
      </trkpt>
      <trkpt lat="42.39903" lon="0.14037">
        <ele>699.3</ele>
        <time>2017-07-02T09:42:01Z</time>
      </trkpt>
      <trkpt lat="42.399" lon="0.14036">
        <ele>699.4</ele>
        <time>2017-07-02T09:42:03Z</time>
      </trkpt>
      <trkpt lat="42.39895" lon="0.14038">
        <ele>699.6</ele>
        <time>2017-07-02T09:42:05Z</time>
      </trkpt>
      <trkpt lat="42.39892" lon="0.14041">
        <ele>699.7</ele>
        <time>2017-07-02T09:42:07Z</time>
      </trkpt>
      <trkpt lat="42.39888" lon="0.14045">
        <ele>700.2</ele>
        <time>2017-07-02T09:42:09Z</time>
      </trkpt>
      <trkpt lat="42.39885" lon="0.14048">
        <ele>700.6</ele>
        <time>2017-07-02T09:42:10Z</time>
      </trkpt>
      <trkpt lat="42.39882" lon="0.14051">
        <ele>700.9</ele>
        <time>2017-07-02T09:42:11Z</time>
      </trkpt>
      <trkpt lat="42.3988" lon="0.14054">
        <ele>701</ele>
        <time>2017-07-02T09:42:12Z</time>
      </trkpt>
      <trkpt lat="42.39876" lon="0.14058">
        <ele>701.4</ele>
        <time>2017-07-02T09:42:14Z</time>
      </trkpt>
      <trkpt lat="42.39873" lon="0.14062">
        <ele>702</ele>
        <time>2017-07-02T09:42:16Z</time>
      </trkpt>
      <trkpt lat="42.39869" lon="0.14066">
        <ele>702.4</ele>
        <time>2017-07-02T09:42:18Z</time>
      </trkpt>
      <trkpt lat="42.39866" lon="0.14067">
        <ele>702.6</ele>
        <time>2017-07-02T09:42:20Z</time>
      </trkpt>
      <trkpt lat="42.39862" lon="0.14067">
        <ele>702.8</ele>
        <time>2017-07-02T09:42:22Z</time>
      </trkpt>
      <trkpt lat="42.39858" lon="0.14068">
        <ele>703</ele>
        <time>2017-07-02T09:42:24Z</time>
      </trkpt>
      <trkpt lat="42.39855" lon="0.14068">
        <ele>703.1</ele>
        <time>2017-07-02T09:42:26Z</time>
      </trkpt>
      <trkpt lat="42.39851" lon="0.14066">
        <ele>703.5</ele>
        <time>2017-07-02T09:42:28Z</time>
      </trkpt>
      <trkpt lat="42.39848" lon="0.14065">
        <ele>703.9</ele>
        <time>2017-07-02T09:42:30Z</time>
      </trkpt>
      <trkpt lat="42.39845" lon="0.14066">
        <ele>704.4</ele>
        <time>2017-07-02T09:42:32Z</time>
      </trkpt>
      <trkpt lat="42.39841" lon="0.14071">
        <ele>704.7</ele>
        <time>2017-07-02T09:42:34Z</time>
      </trkpt>
      <trkpt lat="42.39839" lon="0.14077">
        <ele>705.3</ele>
        <time>2017-07-02T09:42:36Z</time>
      </trkpt>
      <trkpt lat="42.39836" lon="0.14082">
        <ele>706</ele>
        <time>2017-07-02T09:42:38Z</time>
      </trkpt>
      <trkpt lat="42.39834" lon="0.14086">
        <ele>706.5</ele>
        <time>2017-07-02T09:42:40Z</time>
      </trkpt>
      <trkpt lat="42.39831" lon="0.14089">
        <ele>706.8</ele>
        <time>2017-07-02T09:42:42Z</time>
      </trkpt>
      <trkpt lat="42.39828" lon="0.14089">
        <ele>707.4</ele>
        <time>2017-07-02T09:42:44Z</time>
      </trkpt>
      <trkpt lat="42.39824" lon="0.14088">
        <ele>707.9</ele>
        <time>2017-07-02T09:42:46Z</time>
      </trkpt>
      <trkpt lat="42.3982" lon="0.14086">
        <ele>708.2</ele>
        <time>2017-07-02T09:42:48Z</time>
      </trkpt>
      <trkpt lat="42.39816" lon="0.14085">
        <ele>708.4</ele>
        <time>2017-07-02T09:42:50Z</time>
      </trkpt>
      <trkpt lat="42.39813" lon="0.14084">
        <ele>708.9</ele>
        <time>2017-07-02T09:42:52Z</time>
      </trkpt>
      <trkpt lat="42.3981" lon="0.14085">
        <ele>709.5</ele>
        <time>2017-07-02T09:42:54Z</time>
      </trkpt>
      <trkpt lat="42.39806" lon="0.14085">
        <ele>710.2</ele>
        <time>2017-07-02T09:42:57Z</time>
      </trkpt>
      <trkpt lat="42.39802" lon="0.14085">
        <ele>710.7</ele>
        <time>2017-07-02T09:43:00Z</time>
      </trkpt>
      <trkpt lat="42.39798" lon="0.14087">
        <ele>711.3</ele>
        <time>2017-07-02T09:43:03Z</time>
      </trkpt>
      <trkpt lat="42.39796" lon="0.14089">
        <ele>711.8</ele>
        <time>2017-07-02T09:43:05Z</time>
      </trkpt>
      <trkpt lat="42.39793" lon="0.14091">
        <ele>712.1</ele>
        <time>2017-07-02T09:43:07Z</time>
      </trkpt>
      <trkpt lat="42.3979" lon="0.14093">
        <ele>712.4</ele>
        <time>2017-07-02T09:43:09Z</time>
      </trkpt>
      <trkpt lat="42.39788" lon="0.14095">
        <ele>712.8</ele>
        <time>2017-07-02T09:43:11Z</time>
      </trkpt>
      <trkpt lat="42.39785" lon="0.14098">
        <ele>713.2</ele>
        <time>2017-07-02T09:43:13Z</time>
      </trkpt>
      <trkpt lat="42.39783" lon="0.14101">
        <ele>713.3</ele>
        <time>2017-07-02T09:43:15Z</time>
      </trkpt>
      <trkpt lat="42.39781" lon="0.14103">
        <ele>713.4</ele>
        <time>2017-07-02T09:43:17Z</time>
      </trkpt>
      <trkpt lat="42.39779" lon="0.14106">
        <ele>713.4</ele>
        <time>2017-07-02T09:43:19Z</time>
      </trkpt>
      <trkpt lat="42.39776" lon="0.14109">
        <ele>713.5</ele>
        <time>2017-07-02T09:43:21Z</time>
      </trkpt>
      <trkpt lat="42.39773" lon="0.14112">
        <ele>713.5</ele>
        <time>2017-07-02T09:43:23Z</time>
      </trkpt>
      <trkpt lat="42.39771" lon="0.14115">
        <ele>713.4</ele>
        <time>2017-07-02T09:43:25Z</time>
      </trkpt>
      <trkpt lat="42.39767" lon="0.14117">
        <ele>713.3</ele>
        <time>2017-07-02T09:43:27Z</time>
      </trkpt>
      <trkpt lat="42.39764" lon="0.1412">
        <ele>713.2</ele>
        <time>2017-07-02T09:43:29Z</time>
      </trkpt>
      <trkpt lat="42.39761" lon="0.14123">
        <ele>713</ele>
        <time>2017-07-02T09:43:31Z</time>
      </trkpt>
      <trkpt lat="42.39757" lon="0.14127">
        <ele>712.9</ele>
        <time>2017-07-02T09:43:33Z</time>
      </trkpt>
      <trkpt lat="42.39754" lon="0.14129">
        <ele>712.7</ele>
        <time>2017-07-02T09:43:35Z</time>
      </trkpt>
      <trkpt lat="42.39751" lon="0.14131">
        <ele>712.5</ele>
        <time>2017-07-02T09:43:37Z</time>
      </trkpt>
      <trkpt lat="42.39747" lon="0.14133">
        <ele>712.2</ele>
        <time>2017-07-02T09:43:39Z</time>
      </trkpt>
      <trkpt lat="42.39744" lon="0.14136">
        <ele>711.7</ele>
        <time>2017-07-02T09:43:41Z</time>
      </trkpt>
      <trkpt lat="42.39741" lon="0.1414">
        <ele>711</ele>
        <time>2017-07-02T09:43:43Z</time>
      </trkpt>
      <trkpt lat="42.39737" lon="0.14144">
        <ele>710.2</ele>
        <time>2017-07-02T09:43:45Z</time>
      </trkpt>
      <trkpt lat="42.39734" lon="0.14146">
        <ele>709.7</ele>
        <time>2017-07-02T09:43:46Z</time>
      </trkpt>
      <trkpt lat="42.39731" lon="0.14148">
        <ele>709</ele>
        <time>2017-07-02T09:43:47Z</time>
      </trkpt>
      <trkpt lat="42.39727" lon="0.1415">
        <ele>708.3</ele>
        <time>2017-07-02T09:43:48Z</time>
      </trkpt>
      <trkpt lat="42.39724" lon="0.14152">
        <ele>707.5</ele>
        <time>2017-07-02T09:43:49Z</time>
      </trkpt>
      <trkpt lat="42.3972" lon="0.14152">
        <ele>706.6</ele>
        <time>2017-07-02T09:43:50Z</time>
      </trkpt>
      <trkpt lat="42.39717" lon="0.14151">
        <ele>705.9</ele>
        <time>2017-07-02T09:43:51Z</time>
      </trkpt>
      <trkpt lat="42.39712" lon="0.14151">
        <ele>704.7</ele>
        <time>2017-07-02T09:43:53Z</time>
      </trkpt>
      <trkpt lat="42.39708" lon="0.14151">
        <ele>703.7</ele>
        <time>2017-07-02T09:43:55Z</time>
      </trkpt>
      <trkpt lat="42.39702" lon="0.14149">
        <ele>702.3</ele>
        <time>2017-07-02T09:43:57Z</time>
      </trkpt>
      <trkpt lat="42.397" lon="0.14147">
        <ele>701.5</ele>
        <time>2017-07-02T09:43:58Z</time>
      </trkpt>
      <trkpt lat="42.39695" lon="0.14144">
        <ele>699.5</ele>
        <time>2017-07-02T09:44:00Z</time>
      </trkpt>
      <trkpt lat="42.3969" lon="0.14142">
        <ele>698.1</ele>
        <time>2017-07-02T09:44:02Z</time>
      </trkpt>
      <trkpt lat="42.39686" lon="0.14141">
        <ele>696.9</ele>
        <time>2017-07-02T09:44:04Z</time>
      </trkpt>
      <trkpt lat="42.39682" lon="0.1414">
        <ele>695.8</ele>
        <time>2017-07-02T09:44:06Z</time>
      </trkpt>
      <trkpt lat="42.39678" lon="0.14138">
        <ele>694.7</ele>
        <time>2017-07-02T09:44:08Z</time>
      </trkpt>
      <trkpt lat="42.39674" lon="0.14136">
        <ele>693.8</ele>
        <time>2017-07-02T09:44:10Z</time>
      </trkpt>
      <trkpt lat="42.39671" lon="0.14134">
        <ele>693.1</ele>
        <time>2017-07-02T09:44:12Z</time>
      </trkpt>
      <trkpt lat="42.39663" lon="0.14127">
        <ele>691</ele>
        <time>2017-07-02T09:45:10Z</time>
      </trkpt>
      <trkpt lat="42.39659" lon="0.14126">
        <ele>690.3</ele>
        <time>2017-07-02T09:45:12Z</time>
      </trkpt>
      <trkpt lat="42.39655" lon="0.14126">
        <ele>689.5</ele>
        <time>2017-07-02T09:45:14Z</time>
      </trkpt>
      <trkpt lat="42.39651" lon="0.14127">
        <ele>688.6</ele>
        <time>2017-07-02T09:45:16Z</time>
      </trkpt>
      <trkpt lat="42.39646" lon="0.14126">
        <ele>687.7</ele>
        <time>2017-07-02T09:45:18Z</time>
      </trkpt>
      <trkpt lat="42.39641" lon="0.14126">
        <ele>686.9</ele>
        <time>2017-07-02T09:45:20Z</time>
      </trkpt>
      <trkpt lat="42.39636" lon="0.14125">
        <ele>685.9</ele>
        <time>2017-07-02T09:45:22Z</time>
      </trkpt>
      <trkpt lat="42.39633" lon="0.14124">
        <ele>685.4</ele>
        <time>2017-07-02T09:45:23Z</time>
      </trkpt>
      <trkpt lat="42.39631" lon="0.1412">
        <ele>684.9</ele>
        <time>2017-07-02T09:45:25Z</time>
      </trkpt>
      <trkpt lat="42.39627" lon="0.14113">
        <ele>684</ele>
        <time>2017-07-02T09:46:02Z</time>
      </trkpt>
      <trkpt lat="42.39623" lon="0.14111">
        <ele>683.3</ele>
        <time>2017-07-02T09:46:04Z</time>
      </trkpt>
      <trkpt lat="42.39619" lon="0.1411">
        <ele>682.7</ele>
        <time>2017-07-02T09:46:06Z</time>
      </trkpt>
      <trkpt lat="42.39616" lon="0.14109">
        <ele>682.3</ele>
        <time>2017-07-02T09:46:09Z</time>
      </trkpt>
      <trkpt lat="42.39612" lon="0.14108">
        <ele>681.9</ele>
        <time>2017-07-02T09:46:11Z</time>
      </trkpt>
      <trkpt lat="42.39607" lon="0.14107">
        <ele>681.2</ele>
        <time>2017-07-02T09:46:13Z</time>
      </trkpt>
      <trkpt lat="42.39604" lon="0.14105">
        <ele>680.7</ele>
        <time>2017-07-02T09:46:14Z</time>
      </trkpt>
      <trkpt lat="42.396" lon="0.14103">
        <ele>680.2</ele>
        <time>2017-07-02T09:46:15Z</time>
      </trkpt>
      <trkpt lat="42.39596" lon="0.14101">
        <ele>679.6</ele>
        <time>2017-07-02T09:46:16Z</time>
      </trkpt>
      <trkpt lat="42.39593" lon="0.14098">
        <ele>679</ele>
        <time>2017-07-02T09:46:17Z</time>
      </trkpt>
      <trkpt lat="42.39589" lon="0.14095">
        <ele>678.5</ele>
        <time>2017-07-02T09:46:18Z</time>
      </trkpt>
      <trkpt lat="42.39587" lon="0.14093">
        <ele>678</ele>
        <time>2017-07-02T09:46:19Z</time>
      </trkpt>
      <trkpt lat="42.39583" lon="0.14092">
        <ele>677.5</ele>
        <time>2017-07-02T09:46:20Z</time>
      </trkpt>
      <trkpt lat="42.39578" lon="0.1409">
        <ele>676.9</ele>
        <time>2017-07-02T09:46:21Z</time>
      </trkpt>
      <trkpt lat="42.39573" lon="0.1409">
        <ele>676.3</ele>
        <time>2017-07-02T09:46:22Z</time>
      </trkpt>
      <trkpt lat="42.39568" lon="0.14088">
        <ele>675.6</ele>
        <time>2017-07-02T09:46:23Z</time>
      </trkpt>
      <trkpt lat="42.39562" lon="0.14086">
        <ele>675</ele>
        <time>2017-07-02T09:46:24Z</time>
      </trkpt>
      <trkpt lat="42.39557" lon="0.14084">
        <ele>674.6</ele>
        <time>2017-07-02T09:46:25Z</time>
      </trkpt>
      <trkpt lat="42.39553" lon="0.14083">
        <ele>674.6</ele>
        <time>2017-07-02T09:46:26Z</time>
      </trkpt>
      <trkpt lat="42.39548" lon="0.14082">
        <ele>674.9</ele>
        <time>2017-07-02T09:46:28Z</time>
      </trkpt>
      <trkpt lat="42.39544" lon="0.14083">
        <ele>675.7</ele>
        <time>2017-07-02T09:46:30Z</time>
      </trkpt>
      <trkpt lat="42.39541" lon="0.14084">
        <ele>676.4</ele>
        <time>2017-07-02T09:46:32Z</time>
      </trkpt>
      <trkpt lat="42.39538" lon="0.14086">
        <ele>676.8</ele>
        <time>2017-07-02T09:46:35Z</time>
      </trkpt>
      <trkpt lat="42.39534" lon="0.14088">
        <ele>677</ele>
        <time>2017-07-02T09:46:38Z</time>
      </trkpt>
      <trkpt lat="42.39531" lon="0.14086">
        <ele>677.1</ele>
        <time>2017-07-02T09:46:44Z</time>
      </trkpt>
      <trkpt lat="42.39528" lon="0.14084">
        <ele>677.2</ele>
        <time>2017-07-02T09:46:46Z</time>
      </trkpt>
      <trkpt lat="42.39525" lon="0.14082">
        <ele>677.3</ele>
        <time>2017-07-02T09:46:48Z</time>
      </trkpt>
      <trkpt lat="42.39522" lon="0.1408">
        <ele>677.6</ele>
        <time>2017-07-02T09:46:51Z</time>
      </trkpt>
      <trkpt lat="42.39519" lon="0.14078">
        <ele>677.8</ele>
        <time>2017-07-02T09:46:53Z</time>
      </trkpt>
      <trkpt lat="42.39516" lon="0.14076">
        <ele>678</ele>
        <time>2017-07-02T09:46:56Z</time>
      </trkpt>
      <trkpt lat="42.39512" lon="0.14075">
        <ele>678.2</ele>
        <time>2017-07-02T09:46:58Z</time>
      </trkpt>
      <trkpt lat="42.39508" lon="0.14076">
        <ele>678.5</ele>
        <time>2017-07-02T09:47:00Z</time>
      </trkpt>
      <trkpt lat="42.39503" lon="0.14077">
        <ele>679</ele>
        <time>2017-07-02T09:47:02Z</time>
      </trkpt>
      <trkpt lat="42.39498" lon="0.14077">
        <ele>679.2</ele>
        <time>2017-07-02T09:47:04Z</time>
      </trkpt>
      <trkpt lat="42.39493" lon="0.14077">
        <ele>679.5</ele>
        <time>2017-07-02T09:47:06Z</time>
      </trkpt>
      <trkpt lat="42.39491" lon="0.14078">
        <ele>679.7</ele>
        <time>2017-07-02T09:47:07Z</time>
      </trkpt>
      <trkpt lat="42.39488" lon="0.14078">
        <ele>680.1</ele>
        <time>2017-07-02T09:47:08Z</time>
      </trkpt>
      <trkpt lat="42.39483" lon="0.14078">
        <ele>680.6</ele>
        <time>2017-07-02T09:47:10Z</time>
      </trkpt>
      <trkpt lat="42.39479" lon="0.14077">
        <ele>680.9</ele>
        <time>2017-07-02T09:47:12Z</time>
      </trkpt>
      <trkpt lat="42.39475" lon="0.14076">
        <ele>681</ele>
        <time>2017-07-02T09:47:14Z</time>
      </trkpt>
      <trkpt lat="42.39472" lon="0.14075">
        <ele>681.1</ele>
        <time>2017-07-02T09:47:16Z</time>
      </trkpt>
      <trkpt lat="42.39467" lon="0.14073">
        <ele>681.3</ele>
        <time>2017-07-02T09:47:18Z</time>
      </trkpt>
      <trkpt lat="42.39463" lon="0.14071">
        <ele>681.5</ele>
        <time>2017-07-02T09:47:20Z</time>
      </trkpt>
      <trkpt lat="42.39458" lon="0.14069">
        <ele>681.8</ele>
        <time>2017-07-02T09:47:22Z</time>
      </trkpt>
      <trkpt lat="42.39455" lon="0.14069">
        <ele>682.4</ele>
        <time>2017-07-02T09:47:24Z</time>
      </trkpt>
      <trkpt lat="42.39452" lon="0.14069">
        <ele>682.8</ele>
        <time>2017-07-02T09:47:26Z</time>
      </trkpt>
      <trkpt lat="42.39447" lon="0.14068">
        <ele>683.2</ele>
        <time>2017-07-02T09:47:28Z</time>
      </trkpt>
      <trkpt lat="42.39444" lon="0.14068">
        <ele>683.9</ele>
        <time>2017-07-02T09:47:30Z</time>
      </trkpt>
      <trkpt lat="42.3944" lon="0.14067">
        <ele>684.5</ele>
        <time>2017-07-02T09:47:32Z</time>
      </trkpt>
      <trkpt lat="42.39436" lon="0.14067">
        <ele>684.7</ele>
        <time>2017-07-02T09:47:35Z</time>
      </trkpt>
      <trkpt lat="42.39434" lon="0.14066">
        <ele>684.8</ele>
        <time>2017-07-02T09:47:37Z</time>
      </trkpt>
      <trkpt lat="42.39431" lon="0.14065">
        <ele>684.9</ele>
        <time>2017-07-02T09:47:42Z</time>
      </trkpt>
      <trkpt lat="42.39427" lon="0.14066">
        <ele>685.2</ele>
        <time>2017-07-02T09:47:55Z</time>
      </trkpt>
      <trkpt lat="42.39424" lon="0.14065">
        <ele>685.4</ele>
        <time>2017-07-02T09:47:57Z</time>
      </trkpt>
      <trkpt lat="42.39421" lon="0.14063">
        <ele>685.8</ele>
        <time>2017-07-02T09:48:00Z</time>
      </trkpt>
      <trkpt lat="42.39419" lon="0.1406">
        <ele>686.1</ele>
        <time>2017-07-02T09:48:03Z</time>
      </trkpt>
      <trkpt lat="42.39416" lon="0.14058">
        <ele>686.2</ele>
        <time>2017-07-02T09:48:05Z</time>
      </trkpt>
      <trkpt lat="42.39413" lon="0.14056">
        <ele>686.3</ele>
        <time>2017-07-02T09:48:07Z</time>
      </trkpt>
      <trkpt lat="42.39409" lon="0.14054">
        <ele>686.4</ele>
        <time>2017-07-02T09:48:09Z</time>
      </trkpt>
      <trkpt lat="42.39407" lon="0.14053">
        <ele>686.5</ele>
        <time>2017-07-02T09:48:10Z</time>
      </trkpt>
      <trkpt lat="42.39404" lon="0.14052">
        <ele>686.6</ele>
        <time>2017-07-02T09:48:11Z</time>
      </trkpt>
      <trkpt lat="42.39401" lon="0.14051">
        <ele>686.6</ele>
        <time>2017-07-02T09:48:12Z</time>
      </trkpt>
      <trkpt lat="42.39398" lon="0.14051">
        <ele>686.7</ele>
        <time>2017-07-02T09:48:13Z</time>
      </trkpt>
      <trkpt lat="42.39396" lon="0.14052">
        <ele>686.8</ele>
        <time>2017-07-02T09:48:14Z</time>
      </trkpt>
      <trkpt lat="42.39393" lon="0.14054">
        <ele>686.9</ele>
        <time>2017-07-02T09:48:15Z</time>
      </trkpt>
      <trkpt lat="42.3939" lon="0.14056">
        <ele>687</ele>
        <time>2017-07-02T09:48:16Z</time>
      </trkpt>
      <trkpt lat="42.39387" lon="0.14058">
        <ele>687.2</ele>
        <time>2017-07-02T09:48:17Z</time>
      </trkpt>
      <trkpt lat="42.39384" lon="0.1406">
        <ele>687.5</ele>
        <time>2017-07-02T09:48:18Z</time>
      </trkpt>
      <trkpt lat="42.3938" lon="0.14063">
        <ele>688.1</ele>
        <time>2017-07-02T09:48:19Z</time>
      </trkpt>
      <trkpt lat="42.39377" lon="0.14066">
        <ele>688.5</ele>
        <time>2017-07-02T09:48:20Z</time>
      </trkpt>
      <trkpt lat="42.39374" lon="0.14069">
        <ele>688.8</ele>
        <time>2017-07-02T09:48:21Z</time>
      </trkpt>
      <trkpt lat="42.39372" lon="0.14073">
        <ele>689.3</ele>
        <time>2017-07-02T09:48:22Z</time>
      </trkpt>
      <trkpt lat="42.39369" lon="0.14076">
        <ele>689.9</ele>
        <time>2017-07-02T09:48:23Z</time>
      </trkpt>
      <trkpt lat="42.39367" lon="0.14079">
        <ele>690.2</ele>
        <time>2017-07-02T09:48:24Z</time>
      </trkpt>
      <trkpt lat="42.39364" lon="0.14081">
        <ele>690.3</ele>
        <time>2017-07-02T09:48:25Z</time>
      </trkpt>
      <trkpt lat="42.39362" lon="0.14083">
        <ele>690.5</ele>
        <time>2017-07-02T09:48:26Z</time>
      </trkpt>
      <trkpt lat="42.39359" lon="0.14085">
        <ele>690.6</ele>
        <time>2017-07-02T09:48:27Z</time>
      </trkpt>
      <trkpt lat="42.39355" lon="0.14088">
        <ele>691.1</ele>
        <time>2017-07-02T09:48:29Z</time>
      </trkpt>
      <trkpt lat="42.39352" lon="0.14091">
        <ele>691.6</ele>
        <time>2017-07-02T09:48:31Z</time>
      </trkpt>
      <trkpt lat="42.39349" lon="0.14095">
        <ele>691.9</ele>
        <time>2017-07-02T09:48:33Z</time>
      </trkpt>
      <trkpt lat="42.39346" lon="0.14098">
        <ele>692</ele>
        <time>2017-07-02T09:48:35Z</time>
      </trkpt>
      <trkpt lat="42.39344" lon="0.14102">
        <ele>692.2</ele>
        <time>2017-07-02T09:48:37Z</time>
      </trkpt>
      <trkpt lat="42.39342" lon="0.14106">
        <ele>692.3</ele>
        <time>2017-07-02T09:48:39Z</time>
      </trkpt>
      <trkpt lat="42.39338" lon="0.14109">
        <ele>692.5</ele>
        <time>2017-07-02T09:48:41Z</time>
      </trkpt>
      <trkpt lat="42.39334" lon="0.14112">
        <ele>692.6</ele>
        <time>2017-07-02T09:48:43Z</time>
      </trkpt>
      <trkpt lat="42.3933" lon="0.14114">
        <ele>692.8</ele>
        <time>2017-07-02T09:48:45Z</time>
      </trkpt>
      <trkpt lat="42.39327" lon="0.14116">
        <ele>693</ele>
        <time>2017-07-02T09:48:47Z</time>
      </trkpt>
      <trkpt lat="42.39324" lon="0.14119">
        <ele>693.5</ele>
        <time>2017-07-02T09:48:50Z</time>
      </trkpt>
      <trkpt lat="42.39322" lon="0.14122">
        <ele>693.7</ele>
        <time>2017-07-02T09:48:52Z</time>
      </trkpt>
      <trkpt lat="42.39319" lon="0.14125">
        <ele>694</ele>
        <time>2017-07-02T09:48:54Z</time>
      </trkpt>
      <trkpt lat="42.39316" lon="0.14129">
        <ele>694.1</ele>
        <time>2017-07-02T09:48:56Z</time>
      </trkpt>
      <trkpt lat="42.39312" lon="0.14132">
        <ele>694.3</ele>
        <time>2017-07-02T09:48:58Z</time>
      </trkpt>
      <trkpt lat="42.39309" lon="0.14135">
        <ele>694.6</ele>
        <time>2017-07-02T09:49:00Z</time>
      </trkpt>
      <trkpt lat="42.39305" lon="0.14138">
        <ele>694.9</ele>
        <time>2017-07-02T09:49:02Z</time>
      </trkpt>
      <trkpt lat="42.39301" lon="0.14141">
        <ele>695.5</ele>
        <time>2017-07-02T09:49:04Z</time>
      </trkpt>
      <trkpt lat="42.39297" lon="0.14144">
        <ele>695.8</ele>
        <time>2017-07-02T09:49:06Z</time>
      </trkpt>
      <trkpt lat="42.39294" lon="0.14147">
        <ele>696.1</ele>
        <time>2017-07-02T09:49:08Z</time>
      </trkpt>
      <trkpt lat="42.3929" lon="0.1415">
        <ele>696.8</ele>
        <time>2017-07-02T09:49:10Z</time>
      </trkpt>
      <trkpt lat="42.39286" lon="0.14153">
        <ele>697.5</ele>
        <time>2017-07-02T09:49:12Z</time>
      </trkpt>
      <trkpt lat="42.39283" lon="0.14156">
        <ele>697.7</ele>
        <time>2017-07-02T09:49:14Z</time>
      </trkpt>
      <trkpt lat="42.39279" lon="0.14157">
        <ele>697.9</ele>
        <time>2017-07-02T09:49:16Z</time>
      </trkpt>
      <trkpt lat="42.39276" lon="0.14159">
        <ele>698.3</ele>
        <time>2017-07-02T09:49:18Z</time>
      </trkpt>
      <trkpt lat="42.39272" lon="0.14161">
        <ele>698.7</ele>
        <time>2017-07-02T09:49:20Z</time>
      </trkpt>
      <trkpt lat="42.39269" lon="0.14162">
        <ele>698.8</ele>
        <time>2017-07-02T09:49:22Z</time>
      </trkpt>
      <trkpt lat="42.39264" lon="0.14165">
        <ele>699</ele>
        <time>2017-07-02T09:49:24Z</time>
      </trkpt>
      <trkpt lat="42.3926" lon="0.14167">
        <ele>699.1</ele>
        <time>2017-07-02T09:49:26Z</time>
      </trkpt>
      <trkpt lat="42.39256" lon="0.1417">
        <ele>699.2</ele>
        <time>2017-07-02T09:49:28Z</time>
      </trkpt>
      <trkpt lat="42.39253" lon="0.14174">
        <ele>699.3</ele>
        <time>2017-07-02T09:49:30Z</time>
      </trkpt>
      <trkpt lat="42.39249" lon="0.14178">
        <ele>699.4</ele>
        <time>2017-07-02T09:49:32Z</time>
      </trkpt>
      <trkpt lat="42.39246" lon="0.14182">
        <ele>699.5</ele>
        <time>2017-07-02T09:49:34Z</time>
      </trkpt>
      <trkpt lat="42.39244" lon="0.14185">
        <ele>699.6</ele>
        <time>2017-07-02T09:49:36Z</time>
      </trkpt>
      <trkpt lat="42.39241" lon="0.14187">
        <ele>699.6</ele>
        <time>2017-07-02T09:49:38Z</time>
      </trkpt>
      <trkpt lat="42.39239" lon="0.1419">
        <ele>699.7</ele>
        <time>2017-07-02T09:49:40Z</time>
      </trkpt>
      <trkpt lat="42.39236" lon="0.14193">
        <ele>700.1</ele>
        <time>2017-07-02T09:49:42Z</time>
      </trkpt>
      <trkpt lat="42.39232" lon="0.14196">
        <ele>700.5</ele>
        <time>2017-07-02T09:49:44Z</time>
      </trkpt>
      <trkpt lat="42.39229" lon="0.14201">
        <ele>700.8</ele>
        <time>2017-07-02T09:49:46Z</time>
      </trkpt>
      <trkpt lat="42.39225" lon="0.14205">
        <ele>700.9</ele>
        <time>2017-07-02T09:49:48Z</time>
      </trkpt>
      <trkpt lat="42.39223" lon="0.14208">
        <ele>701</ele>
        <time>2017-07-02T09:49:49Z</time>
      </trkpt>
      <trkpt lat="42.3922" lon="0.14213">
        <ele>701</ele>
        <time>2017-07-02T09:49:51Z</time>
      </trkpt>
      <trkpt lat="42.39216" lon="0.14217">
        <ele>701.1</ele>
        <time>2017-07-02T09:49:53Z</time>
      </trkpt>
      <trkpt lat="42.39214" lon="0.14219">
        <ele>701.2</ele>
        <time>2017-07-02T09:49:54Z</time>
      </trkpt>
      <trkpt lat="42.39209" lon="0.14222">
        <ele>701.3</ele>
        <time>2017-07-02T09:49:56Z</time>
      </trkpt>
      <trkpt lat="42.39205" lon="0.14224">
        <ele>701.4</ele>
        <time>2017-07-02T09:49:58Z</time>
      </trkpt>
      <trkpt lat="42.392" lon="0.14225">
        <ele>701.6</ele>
        <time>2017-07-02T09:50:00Z</time>
      </trkpt>
      <trkpt lat="42.39196" lon="0.14227">
        <ele>701.9</ele>
        <time>2017-07-02T09:50:02Z</time>
      </trkpt>
      <trkpt lat="42.39191" lon="0.14228">
        <ele>702.4</ele>
        <time>2017-07-02T09:50:04Z</time>
      </trkpt>
      <trkpt lat="42.39186" lon="0.1423">
        <ele>702.8</ele>
        <time>2017-07-02T09:50:06Z</time>
      </trkpt>
      <trkpt lat="42.39183" lon="0.14232">
        <ele>703</ele>
        <time>2017-07-02T09:50:08Z</time>
      </trkpt>
      <trkpt lat="42.3918" lon="0.14232">
        <ele>703.3</ele>
        <time>2017-07-02T09:50:10Z</time>
      </trkpt>
      <trkpt lat="42.39177" lon="0.14233">
        <ele>703.8</ele>
        <time>2017-07-02T09:50:14Z</time>
      </trkpt>
      <trkpt lat="42.39174" lon="0.14233">
        <ele>704.2</ele>
        <time>2017-07-02T09:50:19Z</time>
      </trkpt>
      <trkpt lat="42.39169" lon="0.1424">
        <ele>705</ele>
        <time>2017-07-02T09:51:17Z</time>
      </trkpt>
      <trkpt lat="42.39167" lon="0.14243">
        <ele>705.3</ele>
        <time>2017-07-02T09:51:19Z</time>
      </trkpt>
      <trkpt lat="42.39166" lon="0.14247">
        <ele>705.6</ele>
        <time>2017-07-02T09:51:21Z</time>
      </trkpt>
      <trkpt lat="42.39166" lon="0.14251">
        <ele>706</ele>
        <time>2017-07-02T09:51:24Z</time>
      </trkpt>
      <trkpt lat="42.3917" lon="0.14252">
        <ele>706.3</ele>
        <time>2017-07-02T09:51:27Z</time>
      </trkpt>
      <trkpt lat="42.39174" lon="0.1425">
        <ele>706.4</ele>
        <time>2017-07-02T09:51:29Z</time>
      </trkpt>
      <trkpt lat="42.39178" lon="0.1425">
        <ele>706.5</ele>
        <time>2017-07-02T09:51:31Z</time>
      </trkpt>
      <trkpt lat="42.39181" lon="0.14251">
        <ele>706.7</ele>
        <time>2017-07-02T09:51:33Z</time>
      </trkpt>
      <trkpt lat="42.39183" lon="0.14254">
        <ele>706.8</ele>
        <time>2017-07-02T09:51:35Z</time>
      </trkpt>
      <trkpt lat="42.39184" lon="0.14259">
        <ele>707.1</ele>
        <time>2017-07-02T09:51:37Z</time>
      </trkpt>
      <trkpt lat="42.39183" lon="0.14264">
        <ele>707.5</ele>
        <time>2017-07-02T09:51:39Z</time>
      </trkpt>
      <trkpt lat="42.39181" lon="0.14268">
        <ele>707.9</ele>
        <time>2017-07-02T09:51:40Z</time>
      </trkpt>
      <trkpt lat="42.39179" lon="0.14271">
        <ele>708.2</ele>
        <time>2017-07-02T09:51:42Z</time>
      </trkpt>
      <trkpt lat="42.39177" lon="0.14276">
        <ele>708.5</ele>
        <time>2017-07-02T09:51:45Z</time>
      </trkpt>
      <trkpt lat="42.39174" lon="0.14282">
        <ele>708.9</ele>
        <time>2017-07-02T09:51:47Z</time>
      </trkpt>
      <trkpt lat="42.39173" lon="0.14286">
        <ele>709.4</ele>
        <time>2017-07-02T09:51:49Z</time>
      </trkpt>
      <trkpt lat="42.3917" lon="0.14291">
        <ele>710.3</ele>
        <time>2017-07-02T09:51:51Z</time>
      </trkpt>
      <trkpt lat="42.39169" lon="0.14295">
        <ele>710.8</ele>
        <time>2017-07-02T09:51:53Z</time>
      </trkpt>
      <trkpt lat="42.39168" lon="0.143">
        <ele>711.7</ele>
        <time>2017-07-02T09:51:55Z</time>
      </trkpt>
      <trkpt lat="42.39166" lon="0.14305">
        <ele>712.6</ele>
        <time>2017-07-02T09:51:58Z</time>
      </trkpt>
      <trkpt lat="42.39166" lon="0.1431">
        <ele>713.6</ele>
        <time>2017-07-02T09:52:01Z</time>
      </trkpt>
      <trkpt lat="42.39167" lon="0.14315">
        <ele>714.4</ele>
        <time>2017-07-02T09:52:04Z</time>
      </trkpt>
      <trkpt lat="42.39167" lon="0.14319">
        <ele>715.1</ele>
        <time>2017-07-02T09:52:06Z</time>
      </trkpt>
      <trkpt lat="42.39167" lon="0.14323">
        <ele>715.9</ele>
        <time>2017-07-02T09:52:08Z</time>
      </trkpt>
      <trkpt lat="42.39168" lon="0.14328">
        <ele>718.1</ele>
        <time>2017-07-02T09:52:10Z</time>
      </trkpt>
      <trkpt lat="42.3917" lon="0.1433">
        <ele>718.2</ele>
        <time>2017-07-02T09:52:13Z</time>
      </trkpt>
      <trkpt lat="42.39173" lon="0.14332">
        <ele>718.4</ele>
        <time>2017-07-02T09:52:17Z</time>
      </trkpt>
      <trkpt lat="42.39176" lon="0.1433">
        <ele>718.5</ele>
        <time>2017-07-02T09:52:23Z</time>
      </trkpt>
      <trkpt lat="42.3918" lon="0.1433">
        <ele>718.9</ele>
        <time>2017-07-02T09:52:26Z</time>
      </trkpt>
      <trkpt lat="42.39183" lon="0.1433">
        <ele>719.3</ele>
        <time>2017-07-02T09:52:28Z</time>
      </trkpt>
      <trkpt lat="42.39186" lon="0.14332">
        <ele>719.9</ele>
        <time>2017-07-02T09:52:30Z</time>
      </trkpt>
      <trkpt lat="42.3919" lon="0.14332">
        <ele>720.4</ele>
        <time>2017-07-02T09:52:33Z</time>
      </trkpt>
      <trkpt lat="42.39193" lon="0.14333">
        <ele>720.8</ele>
        <time>2017-07-02T09:52:37Z</time>
      </trkpt>
      <trkpt lat="42.39196" lon="0.14336">
        <ele>721.5</ele>
        <time>2017-07-02T09:52:41Z</time>
      </trkpt>
      <trkpt lat="42.39199" lon="0.14338">
        <ele>722</ele>
        <time>2017-07-02T09:52:46Z</time>
      </trkpt>
      <trkpt lat="42.39202" lon="0.14342">
        <ele>722.3</ele>
        <time>2017-07-02T09:52:49Z</time>
      </trkpt>
      <trkpt lat="42.39204" lon="0.14344">
        <ele>722.5</ele>
        <time>2017-07-02T09:52:51Z</time>
      </trkpt>
      <trkpt lat="42.39206" lon="0.14348">
        <ele>723.3</ele>
        <time>2017-07-02T09:52:53Z</time>
      </trkpt>
      <trkpt lat="42.39207" lon="0.14352">
        <ele>723.8</ele>
        <time>2017-07-02T09:52:55Z</time>
      </trkpt>
      <trkpt lat="42.39205" lon="0.14356">
        <ele>724.2</ele>
        <time>2017-07-02T09:52:58Z</time>
      </trkpt>
      <trkpt lat="42.39204" lon="0.1436">
        <ele>724.4</ele>
        <time>2017-07-02T09:53:01Z</time>
      </trkpt>
      <trkpt lat="42.39202" lon="0.14363">
        <ele>724.5</ele>
        <time>2017-07-02T09:53:04Z</time>
      </trkpt>
      <trkpt lat="42.39201" lon="0.14367">
        <ele>725</ele>
        <time>2017-07-02T09:53:07Z</time>
      </trkpt>
      <trkpt lat="42.39201" lon="0.14371">
        <ele>725.9</ele>
        <time>2017-07-02T09:53:11Z</time>
      </trkpt>
      <trkpt lat="42.39197" lon="0.14374">
        <ele>728.1</ele>
        <time>2017-07-02T09:53:14Z</time>
      </trkpt>
      <trkpt lat="42.39194" lon="0.14376">
        <ele>729.9</ele>
        <time>2017-07-02T09:53:16Z</time>
      </trkpt>
      <trkpt lat="42.39192" lon="0.14379">
        <ele>730.1</ele>
        <time>2017-07-02T09:53:18Z</time>
      </trkpt>
      <trkpt lat="42.39189" lon="0.14382">
        <ele>730.5</ele>
        <time>2017-07-02T09:53:21Z</time>
      </trkpt>
      <trkpt lat="42.39187" lon="0.14386">
        <ele>731.1</ele>
        <time>2017-07-02T09:53:23Z</time>
      </trkpt>
      <trkpt lat="42.39186" lon="0.14388">
        <ele>731.8</ele>
        <time>2017-07-02T09:53:25Z</time>
      </trkpt>
      <trkpt lat="42.39183" lon="0.14391">
        <ele>732.1</ele>
        <time>2017-07-02T09:53:28Z</time>
      </trkpt>
      <trkpt lat="42.39181" lon="0.14395">
        <ele>732.7</ele>
        <time>2017-07-02T09:53:31Z</time>
      </trkpt>
      <trkpt lat="42.39179" lon="0.14397">
        <ele>733.4</ele>
        <time>2017-07-02T09:53:34Z</time>
      </trkpt>
      <trkpt lat="42.39176" lon="0.144">
        <ele>733.8</ele>
        <time>2017-07-02T09:53:37Z</time>
      </trkpt>
      <trkpt lat="42.39175" lon="0.14404">
        <ele>734.2</ele>
        <time>2017-07-02T09:53:40Z</time>
      </trkpt>
      <trkpt lat="42.39178" lon="0.14407">
        <ele>735</ele>
        <time>2017-07-02T09:53:53Z</time>
      </trkpt>
      <trkpt lat="42.39181" lon="0.14407">
        <ele>735.4</ele>
        <time>2017-07-02T09:53:57Z</time>
      </trkpt>
      <trkpt lat="42.39183" lon="0.1441">
        <ele>735.7</ele>
        <time>2017-07-02T09:53:59Z</time>
      </trkpt>
      <trkpt lat="42.39184" lon="0.14414">
        <ele>736.3</ele>
        <time>2017-07-02T09:54:01Z</time>
      </trkpt>
      <trkpt lat="42.39185" lon="0.14418">
        <ele>737.2</ele>
        <time>2017-07-02T09:54:04Z</time>
      </trkpt>
      <trkpt lat="42.39187" lon="0.14421">
        <ele>737.9</ele>
        <time>2017-07-02T09:54:06Z</time>
      </trkpt>
      <trkpt lat="42.39188" lon="0.14425">
        <ele>738.6</ele>
        <time>2017-07-02T09:54:09Z</time>
      </trkpt>
      <trkpt lat="42.3919" lon="0.14429">
        <ele>739</ele>
        <time>2017-07-02T09:54:13Z</time>
      </trkpt>
      <trkpt lat="42.39192" lon="0.14432">
        <ele>739.2</ele>
        <time>2017-07-02T09:54:15Z</time>
      </trkpt>
      <trkpt lat="42.39195" lon="0.14434">
        <ele>739.5</ele>
        <time>2017-07-02T09:54:17Z</time>
      </trkpt>
      <trkpt lat="42.39198" lon="0.14437">
        <ele>740</ele>
        <time>2017-07-02T09:54:20Z</time>
      </trkpt>
      <trkpt lat="42.39201" lon="0.14438">
        <ele>740.7</ele>
        <time>2017-07-02T09:54:23Z</time>
      </trkpt>
      <trkpt lat="42.39204" lon="0.14441">
        <ele>741</ele>
        <time>2017-07-02T09:54:26Z</time>
      </trkpt>
      <trkpt lat="42.39208" lon="0.14442">
        <ele>741.6</ele>
        <time>2017-07-02T09:54:29Z</time>
      </trkpt>
      <trkpt lat="42.3921" lon="0.14444">
        <ele>742.3</ele>
        <time>2017-07-02T09:54:31Z</time>
      </trkpt>
      <trkpt lat="42.39212" lon="0.14447">
        <ele>742.5</ele>
        <time>2017-07-02T09:54:33Z</time>
      </trkpt>
      <trkpt lat="42.39216" lon="0.14449">
        <ele>742.5</ele>
        <time>2017-07-02T09:54:36Z</time>
      </trkpt>
      <trkpt lat="42.39219" lon="0.1445">
        <ele>742.5</ele>
        <time>2017-07-02T09:54:44Z</time>
      </trkpt>
      <trkpt lat="42.39222" lon="0.1445">
        <ele>742.5</ele>
        <time>2017-07-02T09:54:55Z</time>
      </trkpt>
      <trkpt lat="42.39225" lon="0.14448">
        <ele>742.5</ele>
        <time>2017-07-02T09:54:58Z</time>
      </trkpt>
      <trkpt lat="42.39228" lon="0.14449">
        <ele>742.5</ele>
        <time>2017-07-02T09:55:01Z</time>
      </trkpt>
      <trkpt lat="42.39231" lon="0.14452">
        <ele>742.5</ele>
        <time>2017-07-02T09:55:04Z</time>
      </trkpt>
      <trkpt lat="42.39234" lon="0.14454">
        <ele>742.6</ele>
        <time>2017-07-02T09:55:06Z</time>
      </trkpt>
      <trkpt lat="42.39237" lon="0.14454">
        <ele>742.6</ele>
        <time>2017-07-02T09:55:08Z</time>
      </trkpt>
      <trkpt lat="42.39241" lon="0.14454">
        <ele>742.7</ele>
        <time>2017-07-02T09:55:14Z</time>
      </trkpt>
      <trkpt lat="42.39244" lon="0.14455">
        <ele>742.9</ele>
        <time>2017-07-02T09:55:17Z</time>
      </trkpt>
      <trkpt lat="42.39247" lon="0.14455">
        <ele>743.2</ele>
        <time>2017-07-02T09:55:21Z</time>
      </trkpt>
      <trkpt lat="42.39251" lon="0.14455">
        <ele>743.7</ele>
        <time>2017-07-02T09:55:23Z</time>
      </trkpt>
      <trkpt lat="42.39254" lon="0.14455">
        <ele>744.2</ele>
        <time>2017-07-02T09:55:25Z</time>
      </trkpt>
      <trkpt lat="42.39257" lon="0.14455">
        <ele>744.6</ele>
        <time>2017-07-02T09:55:27Z</time>
      </trkpt>
      <trkpt lat="42.39261" lon="0.14455">
        <ele>745</ele>
        <time>2017-07-02T09:55:29Z</time>
      </trkpt>
      <trkpt lat="42.39265" lon="0.14456">
        <ele>745.8</ele>
        <time>2017-07-02T09:55:31Z</time>
      </trkpt>
      <trkpt lat="42.39267" lon="0.14458">
        <ele>746.2</ele>
        <time>2017-07-02T09:55:32Z</time>
      </trkpt>
      <trkpt lat="42.39269" lon="0.14461">
        <ele>746.6</ele>
        <time>2017-07-02T09:55:33Z</time>
      </trkpt>
      <trkpt lat="42.39272" lon="0.14463">
        <ele>747.2</ele>
        <time>2017-07-02T09:55:34Z</time>
      </trkpt>
      <trkpt lat="42.39275" lon="0.14464">
        <ele>747.5</ele>
        <time>2017-07-02T09:55:35Z</time>
      </trkpt>
      <trkpt lat="42.39277" lon="0.14465">
        <ele>747.6</ele>
        <time>2017-07-02T09:55:36Z</time>
      </trkpt>
      <trkpt lat="42.39281" lon="0.14469">
        <ele>747.8</ele>
        <time>2017-07-02T09:55:38Z</time>
      </trkpt>
      <trkpt lat="42.39284" lon="0.14473">
        <ele>747.8</ele>
        <time>2017-07-02T09:55:40Z</time>
      </trkpt>
      <trkpt lat="42.39286" lon="0.14475">
        <ele>747.9</ele>
        <time>2017-07-02T09:55:42Z</time>
      </trkpt>
      <trkpt lat="42.39289" lon="0.14478">
        <ele>747.9</ele>
        <time>2017-07-02T09:55:44Z</time>
      </trkpt>
      <trkpt lat="42.39292" lon="0.14479">
        <ele>747.9</ele>
        <time>2017-07-02T09:55:46Z</time>
      </trkpt>
      <trkpt lat="42.39295" lon="0.14481">
        <ele>747.9</ele>
        <time>2017-07-02T09:55:48Z</time>
      </trkpt>
      <trkpt lat="42.39298" lon="0.14484">
        <ele>747.9</ele>
        <time>2017-07-02T09:55:50Z</time>
      </trkpt>
      <trkpt lat="42.393" lon="0.14489">
        <ele>748</ele>
        <time>2017-07-02T09:55:52Z</time>
      </trkpt>
      <trkpt lat="42.39302" lon="0.14494">
        <ele>748.1</ele>
        <time>2017-07-02T09:55:54Z</time>
      </trkpt>
      <trkpt lat="42.39302" lon="0.14499">
        <ele>748.4</ele>
        <time>2017-07-02T09:55:56Z</time>
      </trkpt>
      <trkpt lat="42.393" lon="0.14503">
        <ele>748.8</ele>
        <time>2017-07-02T09:55:58Z</time>
      </trkpt>
      <trkpt lat="42.39296" lon="0.14505">
        <ele>749.6</ele>
        <time>2017-07-02T09:56:00Z</time>
      </trkpt>
      <trkpt lat="42.39293" lon="0.14505">
        <ele>749.8</ele>
        <time>2017-07-02T09:56:02Z</time>
      </trkpt>
      <trkpt lat="42.39289" lon="0.14505">
        <ele>750.1</ele>
        <time>2017-07-02T09:56:05Z</time>
      </trkpt>
      <trkpt lat="42.3929" lon="0.14509">
        <ele>750.6</ele>
        <time>2017-07-02T09:56:44Z</time>
      </trkpt>
      <trkpt lat="42.39292" lon="0.14507">
        <ele>751</ele>
        <time>2017-07-02T09:59:08Z</time>
      </trkpt>
      <trkpt lat="42.39289" lon="0.14508">
        <ele>751.3</ele>
        <time>2017-07-02T09:59:16Z</time>
      </trkpt>
      <trkpt lat="42.39286" lon="0.14507">
        <ele>751.6</ele>
        <time>2017-07-02T09:59:21Z</time>
      </trkpt>
      <trkpt lat="42.39283" lon="0.14508">
        <ele>752</ele>
        <time>2017-07-02T09:59:24Z</time>
      </trkpt>
      <trkpt lat="42.3928" lon="0.14509">
        <ele>752.4</ele>
        <time>2017-07-02T09:59:26Z</time>
      </trkpt>
      <trkpt lat="42.39277" lon="0.14509">
        <ele>752.8</ele>
        <time>2017-07-02T09:59:28Z</time>
      </trkpt>
      <trkpt lat="42.39274" lon="0.14508">
        <ele>752.9</ele>
        <time>2017-07-02T09:59:30Z</time>
      </trkpt>
      <trkpt lat="42.3927" lon="0.14506">
        <ele>753.3</ele>
        <time>2017-07-02T09:59:32Z</time>
      </trkpt>
      <trkpt lat="42.39265" lon="0.14507">
        <ele>753.5</ele>
        <time>2017-07-02T09:59:34Z</time>
      </trkpt>
      <trkpt lat="42.39262" lon="0.14504">
        <ele>753.6</ele>
        <time>2017-07-02T09:59:37Z</time>
      </trkpt>
      <trkpt lat="42.3926" lon="0.14501">
        <ele>753.9</ele>
        <time>2017-07-02T09:59:40Z</time>
      </trkpt>
      <trkpt lat="42.39258" lon="0.14501">
        <ele>754.3</ele>
        <time>2017-07-02T09:59:43Z</time>
      </trkpt>
      <trkpt lat="42.39255" lon="0.14504">
        <ele>754.6</ele>
        <time>2017-07-02T09:59:46Z</time>
      </trkpt>
      <trkpt lat="42.39251" lon="0.14506">
        <ele>755</ele>
        <time>2017-07-02T09:59:49Z</time>
      </trkpt>
      <trkpt lat="42.39249" lon="0.14509">
        <ele>755.2</ele>
        <time>2017-07-02T09:59:51Z</time>
      </trkpt>
      <trkpt lat="42.39247" lon="0.14511">
        <ele>755.6</ele>
        <time>2017-07-02T09:59:53Z</time>
      </trkpt>
      <trkpt lat="42.39244" lon="0.14514">
        <ele>756.1</ele>
        <time>2017-07-02T09:59:55Z</time>
      </trkpt>
      <trkpt lat="42.39242" lon="0.14516">
        <ele>756.5</ele>
        <time>2017-07-02T09:59:57Z</time>
      </trkpt>
      <trkpt lat="42.39239" lon="0.14519">
        <ele>756.9</ele>
        <time>2017-07-02T09:59:59Z</time>
      </trkpt>
      <trkpt lat="42.39237" lon="0.14522">
        <ele>757.1</ele>
        <time>2017-07-02T10:00:01Z</time>
      </trkpt>
      <trkpt lat="42.39233" lon="0.14522">
        <ele>757.4</ele>
        <time>2017-07-02T10:00:03Z</time>
      </trkpt>
      <trkpt lat="42.39229" lon="0.14523">
        <ele>757.9</ele>
        <time>2017-07-02T10:00:05Z</time>
      </trkpt>
      <trkpt lat="42.39226" lon="0.14525">
        <ele>758.6</ele>
        <time>2017-07-02T10:00:07Z</time>
      </trkpt>
      <trkpt lat="42.39224" lon="0.14529">
        <ele>759.1</ele>
        <time>2017-07-02T10:00:09Z</time>
      </trkpt>
      <trkpt lat="42.3922" lon="0.14532">
        <ele>760</ele>
        <time>2017-07-02T10:00:11Z</time>
      </trkpt>
      <trkpt lat="42.39217" lon="0.14534">
        <ele>760.4</ele>
        <time>2017-07-02T10:00:13Z</time>
      </trkpt>
      <trkpt lat="42.39214" lon="0.14537">
        <ele>760.9</ele>
        <time>2017-07-02T10:00:15Z</time>
      </trkpt>
      <trkpt lat="42.39211" lon="0.1454">
        <ele>761.1</ele>
        <time>2017-07-02T10:00:17Z</time>
      </trkpt>
      <trkpt lat="42.39209" lon="0.14543">
        <ele>761.3</ele>
        <time>2017-07-02T10:00:19Z</time>
      </trkpt>
      <trkpt lat="42.39206" lon="0.14547">
        <ele>761.8</ele>
        <time>2017-07-02T10:00:22Z</time>
      </trkpt>
      <trkpt lat="42.39203" lon="0.1455">
        <ele>762.3</ele>
        <time>2017-07-02T10:00:24Z</time>
      </trkpt>
      <trkpt lat="42.392" lon="0.14552">
        <ele>762.5</ele>
        <time>2017-07-02T10:00:26Z</time>
      </trkpt>
      <trkpt lat="42.39197" lon="0.14554">
        <ele>762.8</ele>
        <time>2017-07-02T10:00:28Z</time>
      </trkpt>
      <trkpt lat="42.39194" lon="0.14557">
        <ele>763.1</ele>
        <time>2017-07-02T10:00:30Z</time>
      </trkpt>
      <trkpt lat="42.39192" lon="0.14561">
        <ele>763.5</ele>
        <time>2017-07-02T10:00:32Z</time>
      </trkpt>
      <trkpt lat="42.39191" lon="0.14566">
        <ele>763.7</ele>
        <time>2017-07-02T10:00:34Z</time>
      </trkpt>
      <trkpt lat="42.39189" lon="0.14571">
        <ele>763.6</ele>
        <time>2017-07-02T10:00:36Z</time>
      </trkpt>
      <trkpt lat="42.39188" lon="0.14575">
        <ele>763.6</ele>
        <time>2017-07-02T10:00:38Z</time>
      </trkpt>
      <trkpt lat="42.39187" lon="0.14579">
        <ele>763.6</ele>
        <time>2017-07-02T10:00:41Z</time>
      </trkpt>
      <trkpt lat="42.39184" lon="0.14582">
        <ele>763.4</ele>
        <time>2017-07-02T10:00:44Z</time>
      </trkpt>
      <trkpt lat="42.39182" lon="0.14585">
        <ele>763.3</ele>
        <time>2017-07-02T10:00:46Z</time>
      </trkpt>
      <trkpt lat="42.3918" lon="0.14589">
        <ele>763</ele>
        <time>2017-07-02T10:00:49Z</time>
      </trkpt>
      <trkpt lat="42.39177" lon="0.14592">
        <ele>762.6</ele>
        <time>2017-07-02T10:00:51Z</time>
      </trkpt>
      <trkpt lat="42.39175" lon="0.14596">
        <ele>761.7</ele>
        <time>2017-07-02T10:00:53Z</time>
      </trkpt>
      <trkpt lat="42.39172" lon="0.14599">
        <ele>760.8</ele>
        <time>2017-07-02T10:00:55Z</time>
      </trkpt>
      <trkpt lat="42.39169" lon="0.14602">
        <ele>760.1</ele>
        <time>2017-07-02T10:00:58Z</time>
      </trkpt>
      <trkpt lat="42.39166" lon="0.14606">
        <ele>759.8</ele>
        <time>2017-07-02T10:01:00Z</time>
      </trkpt>
      <trkpt lat="42.39164" lon="0.14608">
        <ele>759.6</ele>
        <time>2017-07-02T10:01:02Z</time>
      </trkpt>
      <trkpt lat="42.39161" lon="0.1461">
        <ele>759.5</ele>
        <time>2017-07-02T10:01:04Z</time>
      </trkpt>
      <trkpt lat="42.39159" lon="0.14612">
        <ele>759.4</ele>
        <time>2017-07-02T10:01:06Z</time>
      </trkpt>
      <trkpt lat="42.39156" lon="0.14616">
        <ele>759.3</ele>
        <time>2017-07-02T10:01:09Z</time>
      </trkpt>
      <trkpt lat="42.39155" lon="0.14619">
        <ele>759.3</ele>
        <time>2017-07-02T10:01:12Z</time>
      </trkpt>
      <trkpt lat="42.39152" lon="0.14622">
        <ele>759.2</ele>
        <time>2017-07-02T10:01:15Z</time>
      </trkpt>
      <trkpt lat="42.39148" lon="0.14624">
        <ele>759.2</ele>
        <time>2017-07-02T10:01:17Z</time>
      </trkpt>
      <trkpt lat="42.39144" lon="0.14625">
        <ele>759.2</ele>
        <time>2017-07-02T10:01:19Z</time>
      </trkpt>
      <trkpt lat="42.39139" lon="0.14624">
        <ele>759.2</ele>
        <time>2017-07-02T10:01:21Z</time>
      </trkpt>
      <trkpt lat="42.39134" lon="0.14622">
        <ele>759.1</ele>
        <time>2017-07-02T10:01:23Z</time>
      </trkpt>
      <trkpt lat="42.39129" lon="0.14622">
        <ele>759.1</ele>
        <time>2017-07-02T10:01:25Z</time>
      </trkpt>
      <trkpt lat="42.39127" lon="0.14625">
        <ele>759.2</ele>
        <time>2017-07-02T10:01:28Z</time>
      </trkpt>
      <trkpt lat="42.39128" lon="0.14629">
        <ele>759.2</ele>
        <time>2017-07-02T10:01:32Z</time>
      </trkpt>
      <trkpt lat="42.39126" lon="0.14633">
        <ele>759.2</ele>
        <time>2017-07-02T10:01:35Z</time>
      </trkpt>
      <trkpt lat="42.39122" lon="0.14635">
        <ele>759.3</ele>
        <time>2017-07-02T10:01:37Z</time>
      </trkpt>
      <trkpt lat="42.39117" lon="0.14637">
        <ele>759.4</ele>
        <time>2017-07-02T10:01:39Z</time>
      </trkpt>
      <trkpt lat="42.39114" lon="0.1464">
        <ele>759.4</ele>
        <time>2017-07-02T10:01:41Z</time>
      </trkpt>
      <trkpt lat="42.39111" lon="0.14643">
        <ele>759.8</ele>
        <time>2017-07-02T10:01:45Z</time>
      </trkpt>
      <trkpt lat="42.39108" lon="0.14644">
        <ele>760.3</ele>
        <time>2017-07-02T10:01:47Z</time>
      </trkpt>
      <trkpt lat="42.39103" lon="0.14646">
        <ele>761.5</ele>
        <time>2017-07-02T10:01:49Z</time>
      </trkpt>
      <trkpt lat="42.39099" lon="0.14648">
        <ele>761.3</ele>
        <time>2017-07-02T10:01:51Z</time>
      </trkpt>
      <trkpt lat="42.39095" lon="0.14647">
        <ele>762.1</ele>
        <time>2017-07-02T10:01:53Z</time>
      </trkpt>
      <trkpt lat="42.39089" lon="0.14647">
        <ele>763.5</ele>
        <time>2017-07-02T10:01:55Z</time>
      </trkpt>
      <trkpt lat="42.39087" lon="0.14649">
        <ele>764.3</ele>
        <time>2017-07-02T10:01:56Z</time>
      </trkpt>
      <trkpt lat="42.39083" lon="0.14653">
        <ele>764.1</ele>
        <time>2017-07-02T10:01:58Z</time>
      </trkpt>
      <trkpt lat="42.39081" lon="0.14657">
        <ele>764.1</ele>
        <time>2017-07-02T10:02:00Z</time>
      </trkpt>
      <trkpt lat="42.39077" lon="0.1466">
        <ele>764.3</ele>
        <time>2017-07-02T10:02:02Z</time>
      </trkpt>
      <trkpt lat="42.39072" lon="0.14661">
        <ele>765.4</ele>
        <time>2017-07-02T10:02:04Z</time>
      </trkpt>
      <trkpt lat="42.39067" lon="0.14663">
        <ele>767.3</ele>
        <time>2017-07-02T10:02:06Z</time>
      </trkpt>
      <trkpt lat="42.39064" lon="0.14664">
        <ele>768.1</ele>
        <time>2017-07-02T10:02:07Z</time>
      </trkpt>
      <trkpt lat="42.39062" lon="0.14666">
        <ele>769.2</ele>
        <time>2017-07-02T10:02:08Z</time>
      </trkpt>
      <trkpt lat="42.39059" lon="0.14669">
        <ele>770</ele>
        <time>2017-07-02T10:02:10Z</time>
      </trkpt>
      <trkpt lat="42.39061" lon="0.14672">
        <ele>769.6</ele>
        <time>2017-07-02T10:02:14Z</time>
      </trkpt>
      <trkpt lat="42.39063" lon="0.14675">
        <ele>768.6</ele>
        <time>2017-07-02T10:02:22Z</time>
      </trkpt>
      <trkpt lat="42.39066" lon="0.14678">
        <ele>768.4</ele>
        <time>2017-07-02T10:02:25Z</time>
      </trkpt>
      <trkpt lat="42.39066" lon="0.14681">
        <ele>768.4</ele>
        <time>2017-07-02T10:02:30Z</time>
      </trkpt>
      <trkpt lat="42.39065" lon="0.14685">
        <ele>768.5</ele>
        <time>2017-07-02T10:02:34Z</time>
      </trkpt>
      <trkpt lat="42.39063" lon="0.14689">
        <ele>768.5</ele>
        <time>2017-07-02T10:02:40Z</time>
      </trkpt>
      <trkpt lat="42.39061" lon="0.14692">
        <ele>768.5</ele>
        <time>2017-07-02T10:02:44Z</time>
      </trkpt>
      <trkpt lat="42.39059" lon="0.14695">
        <ele>768.5</ele>
        <time>2017-07-02T10:02:51Z</time>
      </trkpt>
      <trkpt lat="42.39059" lon="0.14699">
        <ele>768.5</ele>
        <time>2017-07-02T10:02:59Z</time>
      </trkpt>
      <trkpt lat="42.39058" lon="0.14703">
        <ele>768.5</ele>
        <time>2017-07-02T10:03:05Z</time>
      </trkpt>
      <trkpt lat="42.39058" lon="0.14707">
        <ele>768.5</ele>
        <time>2017-07-02T10:03:10Z</time>
      </trkpt>
      <trkpt lat="42.39055" lon="0.14709">
        <ele>768.5</ele>
        <time>2017-07-02T10:03:17Z</time>
      </trkpt>
      <trkpt lat="42.39053" lon="0.14711">
        <ele>768.5</ele>
        <time>2017-07-02T10:03:19Z</time>
      </trkpt>
      <trkpt lat="42.3905" lon="0.14714">
        <ele>768.4</ele>
        <time>2017-07-02T10:03:21Z</time>
      </trkpt>
      <trkpt lat="42.39049" lon="0.14718">
        <ele>768.4</ele>
        <time>2017-07-02T10:03:24Z</time>
      </trkpt>
      <trkpt lat="42.39045" lon="0.14721">
        <ele>768.4</ele>
        <time>2017-07-02T10:03:27Z</time>
      </trkpt>
      <trkpt lat="42.39041" lon="0.14722">
        <ele>768.4</ele>
        <time>2017-07-02T10:03:29Z</time>
      </trkpt>
      <trkpt lat="42.39037" lon="0.14725">
        <ele>768.4</ele>
        <time>2017-07-02T10:03:31Z</time>
      </trkpt>
      <trkpt lat="42.39034" lon="0.14728">
        <ele>768.3</ele>
        <time>2017-07-02T10:03:33Z</time>
      </trkpt>
      <trkpt lat="42.39031" lon="0.14731">
        <ele>768.3</ele>
        <time>2017-07-02T10:03:35Z</time>
      </trkpt>
      <trkpt lat="42.39026" lon="0.14731">
        <ele>768.3</ele>
        <time>2017-07-02T10:03:37Z</time>
      </trkpt>
      <trkpt lat="42.39023" lon="0.1473">
        <ele>768.3</ele>
        <time>2017-07-02T10:03:38Z</time>
      </trkpt>
      <trkpt lat="42.3902" lon="0.14731">
        <ele>768.3</ele>
        <time>2017-07-02T10:03:39Z</time>
      </trkpt>
      <trkpt lat="42.39017" lon="0.14732">
        <ele>768.2</ele>
        <time>2017-07-02T10:03:40Z</time>
      </trkpt>
      <trkpt lat="42.39014" lon="0.14734">
        <ele>768.2</ele>
        <time>2017-07-02T10:03:41Z</time>
      </trkpt>
      <trkpt lat="42.39011" lon="0.14736">
        <ele>768.2</ele>
        <time>2017-07-02T10:03:42Z</time>
      </trkpt>
      <trkpt lat="42.39008" lon="0.14737">
        <ele>768.2</ele>
        <time>2017-07-02T10:03:43Z</time>
      </trkpt>
      <trkpt lat="42.39005" lon="0.14739">
        <ele>768.2</ele>
        <time>2017-07-02T10:03:44Z</time>
      </trkpt>
      <trkpt lat="42.39002" lon="0.1474">
        <ele>768.1</ele>
        <time>2017-07-02T10:03:45Z</time>
      </trkpt>
      <trkpt lat="42.38999" lon="0.14741">
        <ele>768.1</ele>
        <time>2017-07-02T10:03:46Z</time>
      </trkpt>
      <trkpt lat="42.38995" lon="0.14743">
        <ele>768.1</ele>
        <time>2017-07-02T10:03:47Z</time>
      </trkpt>
      <trkpt lat="42.38992" lon="0.14745">
        <ele>768.1</ele>
        <time>2017-07-02T10:03:48Z</time>
      </trkpt>
      <trkpt lat="42.3899" lon="0.14749">
        <ele>768</ele>
        <time>2017-07-02T10:03:49Z</time>
      </trkpt>
      <trkpt lat="42.38988" lon="0.14753">
        <ele>768</ele>
        <time>2017-07-02T10:03:50Z</time>
      </trkpt>
      <trkpt lat="42.38987" lon="0.14756">
        <ele>768</ele>
        <time>2017-07-02T10:03:51Z</time>
      </trkpt>
      <trkpt lat="42.38985" lon="0.14762">
        <ele>768</ele>
        <time>2017-07-02T10:03:53Z</time>
      </trkpt>
      <trkpt lat="42.38983" lon="0.14768">
        <ele>768</ele>
        <time>2017-07-02T10:03:55Z</time>
      </trkpt>
      <trkpt lat="42.38981" lon="0.14772">
        <ele>767.9</ele>
        <time>2017-07-02T10:03:57Z</time>
      </trkpt>
      <trkpt lat="42.38977" lon="0.14776">
        <ele>767.9</ele>
        <time>2017-07-02T10:03:59Z</time>
      </trkpt>
      <trkpt lat="42.38974" lon="0.1478">
        <ele>767.9</ele>
        <time>2017-07-02T10:04:01Z</time>
      </trkpt>
      <trkpt lat="42.38968" lon="0.14781">
        <ele>767.8</ele>
        <time>2017-07-02T10:04:03Z</time>
      </trkpt>
      <trkpt lat="42.38965" lon="0.14782">
        <ele>767.7</ele>
        <time>2017-07-02T10:04:04Z</time>
      </trkpt>
      <trkpt lat="42.38961" lon="0.14786">
        <ele>767.6</ele>
        <time>2017-07-02T10:04:06Z</time>
      </trkpt>
      <trkpt lat="42.38958" lon="0.14791">
        <ele>767.5</ele>
        <time>2017-07-02T10:04:08Z</time>
      </trkpt>
      <trkpt lat="42.38954" lon="0.14795">
        <ele>767.3</ele>
        <time>2017-07-02T10:04:10Z</time>
      </trkpt>
      <trkpt lat="42.38951" lon="0.14797">
        <ele>767.2</ele>
        <time>2017-07-02T10:04:11Z</time>
      </trkpt>
      <trkpt lat="42.38948" lon="0.14799">
        <ele>767.1</ele>
        <time>2017-07-02T10:04:12Z</time>
      </trkpt>
      <trkpt lat="42.38945" lon="0.14801">
        <ele>767</ele>
        <time>2017-07-02T10:04:13Z</time>
      </trkpt>
      <trkpt lat="42.38942" lon="0.14803">
        <ele>766.9</ele>
        <time>2017-07-02T10:04:14Z</time>
      </trkpt>
      <trkpt lat="42.3894" lon="0.14806">
        <ele>766.8</ele>
        <time>2017-07-02T10:04:15Z</time>
      </trkpt>
      <trkpt lat="42.38937" lon="0.14808">
        <ele>766.5</ele>
        <time>2017-07-02T10:04:16Z</time>
      </trkpt>
      <trkpt lat="42.38934" lon="0.14812">
        <ele>766.1</ele>
        <time>2017-07-02T10:04:18Z</time>
      </trkpt>
      <trkpt lat="42.3893" lon="0.14815">
        <ele>765.5</ele>
        <time>2017-07-02T10:04:20Z</time>
      </trkpt>
      <trkpt lat="42.38924" lon="0.14816">
        <ele>764.7</ele>
        <time>2017-07-02T10:04:22Z</time>
      </trkpt>
      <trkpt lat="42.38921" lon="0.14817">
        <ele>764.2</ele>
        <time>2017-07-02T10:04:23Z</time>
      </trkpt>
      <trkpt lat="42.38918" lon="0.14819">
        <ele>763.4</ele>
        <time>2017-07-02T10:04:24Z</time>
      </trkpt>
      <trkpt lat="42.38915" lon="0.14822">
        <ele>762.8</ele>
        <time>2017-07-02T10:04:25Z</time>
      </trkpt>
      <trkpt lat="42.38913" lon="0.14825">
        <ele>762.3</ele>
        <time>2017-07-02T10:04:26Z</time>
      </trkpt>
      <trkpt lat="42.3891" lon="0.14828">
        <ele>761.6</ele>
        <time>2017-07-02T10:04:27Z</time>
      </trkpt>
      <trkpt lat="42.38907" lon="0.14831">
        <ele>761</ele>
        <time>2017-07-02T10:04:28Z</time>
      </trkpt>
      <trkpt lat="42.38904" lon="0.14832">
        <ele>760.4</ele>
        <time>2017-07-02T10:04:29Z</time>
      </trkpt>
      <trkpt lat="42.38899" lon="0.1483">
        <ele>759.4</ele>
        <time>2017-07-02T10:04:31Z</time>
      </trkpt>
      <trkpt lat="42.38896" lon="0.14829">
        <ele>758.8</ele>
        <time>2017-07-02T10:04:32Z</time>
      </trkpt>
      <trkpt lat="42.38892" lon="0.14829">
        <ele>757.9</ele>
        <time>2017-07-02T10:04:34Z</time>
      </trkpt>
      <trkpt lat="42.38889" lon="0.14832">
        <ele>756.9</ele>
        <time>2017-07-02T10:04:36Z</time>
      </trkpt>
      <trkpt lat="42.38887" lon="0.14835">
        <ele>756.1</ele>
        <time>2017-07-02T10:04:45Z</time>
      </trkpt>
      <trkpt lat="42.38884" lon="0.14837">
        <ele>755.4</ele>
        <time>2017-07-02T10:04:50Z</time>
      </trkpt>
      <trkpt lat="42.38882" lon="0.14839">
        <ele>754.5</ele>
        <time>2017-07-02T10:04:54Z</time>
      </trkpt>
      <trkpt lat="42.38879" lon="0.14843">
        <ele>753.6</ele>
        <time>2017-07-02T10:04:56Z</time>
      </trkpt>
      <trkpt lat="42.38876" lon="0.14845">
        <ele>752.8</ele>
        <time>2017-07-02T10:04:58Z</time>
      </trkpt>
      <trkpt lat="42.38874" lon="0.14848">
        <ele>751.9</ele>
        <time>2017-07-02T10:05:00Z</time>
      </trkpt>
      <trkpt lat="42.38872" lon="0.14852">
        <ele>751.4</ele>
        <time>2017-07-02T10:05:02Z</time>
      </trkpt>
      <trkpt lat="42.38871" lon="0.14857">
        <ele>751.1</ele>
        <time>2017-07-02T10:05:04Z</time>
      </trkpt>
      <trkpt lat="42.38867" lon="0.14862">
        <ele>750.8</ele>
        <time>2017-07-02T10:05:06Z</time>
      </trkpt>
      <trkpt lat="42.38863" lon="0.14864">
        <ele>750.6</ele>
        <time>2017-07-02T10:05:08Z</time>
      </trkpt>
      <trkpt lat="42.3886" lon="0.14866">
        <ele>750.5</ele>
        <time>2017-07-02T10:05:10Z</time>
      </trkpt>
      <trkpt lat="42.38855" lon="0.14869">
        <ele>750.4</ele>
        <time>2017-07-02T10:05:12Z</time>
      </trkpt>
      <trkpt lat="42.38851" lon="0.14869">
        <ele>750.4</ele>
        <time>2017-07-02T10:05:14Z</time>
      </trkpt>
      <trkpt lat="42.38846" lon="0.14871">
        <ele>750.3</ele>
        <time>2017-07-02T10:05:16Z</time>
      </trkpt>
      <trkpt lat="42.38842" lon="0.14875">
        <ele>750.3</ele>
        <time>2017-07-02T10:05:18Z</time>
      </trkpt>
      <trkpt lat="42.38839" lon="0.1488">
        <ele>750.3</ele>
        <time>2017-07-02T10:05:20Z</time>
      </trkpt>
      <trkpt lat="42.38837" lon="0.14885">
        <ele>750.2</ele>
        <time>2017-07-02T10:05:22Z</time>
      </trkpt>
      <trkpt lat="42.38836" lon="0.14891">
        <ele>750.2</ele>
        <time>2017-07-02T10:05:24Z</time>
      </trkpt>
      <trkpt lat="42.38834" lon="0.14896">
        <ele>750.2</ele>
        <time>2017-07-02T10:05:26Z</time>
      </trkpt>
      <trkpt lat="42.3883" lon="0.14901">
        <ele>750.2</ele>
        <time>2017-07-02T10:05:28Z</time>
      </trkpt>
      <trkpt lat="42.38827" lon="0.14903">
        <ele>750.2</ele>
        <time>2017-07-02T10:05:29Z</time>
      </trkpt>
      <trkpt lat="42.38824" lon="0.14904">
        <ele>750.2</ele>
        <time>2017-07-02T10:05:30Z</time>
      </trkpt>
      <trkpt lat="42.38821" lon="0.14905">
        <ele>750.2</ele>
        <time>2017-07-02T10:05:31Z</time>
      </trkpt>
      <trkpt lat="42.38818" lon="0.14906">
        <ele>750.3</ele>
        <time>2017-07-02T10:05:32Z</time>
      </trkpt>
      <trkpt lat="42.38814" lon="0.14908">
        <ele>750.3</ele>
        <time>2017-07-02T10:05:33Z</time>
      </trkpt>
      <trkpt lat="42.38811" lon="0.1491">
        <ele>750.4</ele>
        <time>2017-07-02T10:05:34Z</time>
      </trkpt>
      <trkpt lat="42.38807" lon="0.14912">
        <ele>750.5</ele>
        <time>2017-07-02T10:05:35Z</time>
      </trkpt>
      <trkpt lat="42.38804" lon="0.14914">
        <ele>750.7</ele>
        <time>2017-07-02T10:05:36Z</time>
      </trkpt>
      <trkpt lat="42.388" lon="0.14916">
        <ele>751.1</ele>
        <time>2017-07-02T10:05:37Z</time>
      </trkpt>
      <trkpt lat="42.38797" lon="0.14917">
        <ele>751.3</ele>
        <time>2017-07-02T10:05:38Z</time>
      </trkpt>
      <trkpt lat="42.38793" lon="0.14917">
        <ele>751.4</ele>
        <time>2017-07-02T10:05:39Z</time>
      </trkpt>
      <trkpt lat="42.3879" lon="0.14916">
        <ele>751.5</ele>
        <time>2017-07-02T10:05:40Z</time>
      </trkpt>
      <trkpt lat="42.38788" lon="0.14916">
        <ele>751.6</ele>
        <time>2017-07-02T10:05:41Z</time>
      </trkpt>
      <trkpt lat="42.38784" lon="0.14917">
        <ele>751.7</ele>
        <time>2017-07-02T10:05:43Z</time>
      </trkpt>
      <trkpt lat="42.3878" lon="0.14919">
        <ele>751.8</ele>
        <time>2017-07-02T10:05:45Z</time>
      </trkpt>
      <trkpt lat="42.38777" lon="0.1492">
        <ele>751.9</ele>
        <time>2017-07-02T10:05:47Z</time>
      </trkpt>
      <trkpt lat="42.38773" lon="0.14919">
        <ele>752.2</ele>
        <time>2017-07-02T10:05:49Z</time>
      </trkpt>
      <trkpt lat="42.3877" lon="0.1492">
        <ele>752.4</ele>
        <time>2017-07-02T10:05:50Z</time>
      </trkpt>
      <trkpt lat="42.38767" lon="0.14921">
        <ele>752.8</ele>
        <time>2017-07-02T10:05:51Z</time>
      </trkpt>
      <trkpt lat="42.38763" lon="0.14925">
        <ele>753.2</ele>
        <time>2017-07-02T10:05:53Z</time>
      </trkpt>
      <trkpt lat="42.3876" lon="0.14927">
        <ele>753.4</ele>
        <time>2017-07-02T10:05:55Z</time>
      </trkpt>
      <trkpt lat="42.38756" lon="0.14928">
        <ele>753.6</ele>
        <time>2017-07-02T10:05:57Z</time>
      </trkpt>
      <trkpt lat="42.38751" lon="0.14928">
        <ele>753.7</ele>
        <time>2017-07-02T10:05:59Z</time>
      </trkpt>
      <trkpt lat="42.38747" lon="0.14929">
        <ele>754</ele>
        <time>2017-07-02T10:06:01Z</time>
      </trkpt>
      <trkpt lat="42.38743" lon="0.14933">
        <ele>754.3</ele>
        <time>2017-07-02T10:06:03Z</time>
      </trkpt>
      <trkpt lat="42.3874" lon="0.14937">
        <ele>754.6</ele>
        <time>2017-07-02T10:06:05Z</time>
      </trkpt>
      <trkpt lat="42.38737" lon="0.1494">
        <ele>754.8</ele>
        <time>2017-07-02T10:06:07Z</time>
      </trkpt>
      <trkpt lat="42.38732" lon="0.14944">
        <ele>754.8</ele>
        <time>2017-07-02T10:06:09Z</time>
      </trkpt>
      <trkpt lat="42.38729" lon="0.14948">
        <ele>754.7</ele>
        <time>2017-07-02T10:06:11Z</time>
      </trkpt>
      <trkpt lat="42.38726" lon="0.1495">
        <ele>754.6</ele>
        <time>2017-07-02T10:06:13Z</time>
      </trkpt>
      <trkpt lat="42.38721" lon="0.14952">
        <ele>754.5</ele>
        <time>2017-07-02T10:06:15Z</time>
      </trkpt>
      <trkpt lat="42.38718" lon="0.14955">
        <ele>754.3</ele>
        <time>2017-07-02T10:06:17Z</time>
      </trkpt>
      <trkpt lat="42.38717" lon="0.14959">
        <ele>754.2</ele>
        <time>2017-07-02T10:06:19Z</time>
      </trkpt>
      <trkpt lat="42.38715" lon="0.14963">
        <ele>753.9</ele>
        <time>2017-07-02T10:06:21Z</time>
      </trkpt>
      <trkpt lat="42.38712" lon="0.14968">
        <ele>753.4</ele>
        <time>2017-07-02T10:06:23Z</time>
      </trkpt>
      <trkpt lat="42.3871" lon="0.14971">
        <ele>752.8</ele>
        <time>2017-07-02T10:06:25Z</time>
      </trkpt>
      <trkpt lat="42.38708" lon="0.14973">
        <ele>752.3</ele>
        <time>2017-07-02T10:06:27Z</time>
      </trkpt>
      <trkpt lat="42.38705" lon="0.14975">
        <ele>751.7</ele>
        <time>2017-07-02T10:06:29Z</time>
      </trkpt>
      <trkpt lat="42.38702" lon="0.14978">
        <ele>750.9</ele>
        <time>2017-07-02T10:06:31Z</time>
      </trkpt>
      <trkpt lat="42.387" lon="0.14981">
        <ele>750.4</ele>
        <time>2017-07-02T10:06:33Z</time>
      </trkpt>
      <trkpt lat="42.38691" lon="0.14984">
        <ele>749.3</ele>
        <time>2017-07-02T10:09:42Z</time>
      </trkpt>
      <trkpt lat="42.38688" lon="0.14986">
        <ele>748.9</ele>
        <time>2017-07-02T10:09:44Z</time>
      </trkpt>
      <trkpt lat="42.38686" lon="0.14988">
        <ele>748.5</ele>
        <time>2017-07-02T10:09:46Z</time>
      </trkpt>
      <trkpt lat="42.38683" lon="0.14989">
        <ele>748.1</ele>
        <time>2017-07-02T10:09:48Z</time>
      </trkpt>
      <trkpt lat="42.3868" lon="0.14989">
        <ele>747.7</ele>
        <time>2017-07-02T10:09:50Z</time>
      </trkpt>
      <trkpt lat="42.38677" lon="0.1499">
        <ele>747.3</ele>
        <time>2017-07-02T10:09:52Z</time>
      </trkpt>
      <trkpt lat="42.38673" lon="0.14989">
        <ele>746.8</ele>
        <time>2017-07-02T10:09:54Z</time>
      </trkpt>
      <trkpt lat="42.38669" lon="0.14991">
        <ele>746.3</ele>
        <time>2017-07-02T10:09:56Z</time>
      </trkpt>
      <trkpt lat="42.38667" lon="0.14993">
        <ele>745.9</ele>
        <time>2017-07-02T10:09:57Z</time>
      </trkpt>
      <trkpt lat="42.38665" lon="0.14996">
        <ele>745.6</ele>
        <time>2017-07-02T10:09:58Z</time>
      </trkpt>
      <trkpt lat="42.38662" lon="0.14999">
        <ele>745.2</ele>
        <time>2017-07-02T10:10:00Z</time>
      </trkpt>
      <trkpt lat="42.38659" lon="0.14998">
        <ele>744.9</ele>
        <time>2017-07-02T10:10:21Z</time>
      </trkpt>
      <trkpt lat="42.38657" lon="0.15">
        <ele>744.5</ele>
        <time>2017-07-02T10:10:23Z</time>
      </trkpt>
      <trkpt lat="42.38654" lon="0.15002">
        <ele>744.2</ele>
        <time>2017-07-02T10:10:26Z</time>
      </trkpt>
      <trkpt lat="42.38651" lon="0.15005">
        <ele>743.8</ele>
        <time>2017-07-02T10:10:32Z</time>
      </trkpt>
      <trkpt lat="42.38649" lon="0.15008">
        <ele>743.5</ele>
        <time>2017-07-02T10:10:35Z</time>
      </trkpt>
      <trkpt lat="42.38646" lon="0.15012">
        <ele>743</ele>
        <time>2017-07-02T10:10:37Z</time>
      </trkpt>
      <trkpt lat="42.38644" lon="0.15015">
        <ele>742.7</ele>
        <time>2017-07-02T10:10:38Z</time>
      </trkpt>
      <trkpt lat="42.38641" lon="0.15017">
        <ele>742.4</ele>
        <time>2017-07-02T10:10:40Z</time>
      </trkpt>
      <trkpt lat="42.38638" lon="0.15021">
        <ele>742</ele>
        <time>2017-07-02T10:11:44Z</time>
      </trkpt>
      <trkpt lat="42.38634" lon="0.15024">
        <ele>741.5</ele>
        <time>2017-07-02T10:11:46Z</time>
      </trkpt>
      <trkpt lat="42.38631" lon="0.15026">
        <ele>741.3</ele>
        <time>2017-07-02T10:11:47Z</time>
      </trkpt>
      <trkpt lat="42.38628" lon="0.15028">
        <ele>741</ele>
        <time>2017-07-02T10:11:48Z</time>
      </trkpt>
      <trkpt lat="42.38624" lon="0.15029">
        <ele>740.7</ele>
        <time>2017-07-02T10:11:49Z</time>
      </trkpt>
      <trkpt lat="42.38619" lon="0.1503">
        <ele>740.6</ele>
        <time>2017-07-02T10:11:50Z</time>
      </trkpt>
      <trkpt lat="42.38613" lon="0.15033">
        <ele>740.5</ele>
        <time>2017-07-02T10:11:51Z</time>
      </trkpt>
      <trkpt lat="42.38608" lon="0.15035">
        <ele>740.4</ele>
        <time>2017-07-02T10:11:52Z</time>
      </trkpt>
      <trkpt lat="42.38603" lon="0.15037">
        <ele>740.3</ele>
        <time>2017-07-02T10:11:53Z</time>
      </trkpt>
      <trkpt lat="42.38598" lon="0.15039">
        <ele>740.3</ele>
        <time>2017-07-02T10:11:54Z</time>
      </trkpt>
      <trkpt lat="42.38594" lon="0.15042">
        <ele>740.2</ele>
        <time>2017-07-02T10:11:55Z</time>
      </trkpt>
      <trkpt lat="42.3859" lon="0.15045">
        <ele>740.2</ele>
        <time>2017-07-02T10:11:56Z</time>
      </trkpt>
      <trkpt lat="42.38587" lon="0.15048">
        <ele>740.2</ele>
        <time>2017-07-02T10:11:57Z</time>
      </trkpt>
      <trkpt lat="42.38584" lon="0.15052">
        <ele>740.2</ele>
        <time>2017-07-02T10:11:58Z</time>
      </trkpt>
      <trkpt lat="42.38583" lon="0.15055">
        <ele>740.2</ele>
        <time>2017-07-02T10:11:59Z</time>
      </trkpt>
      <trkpt lat="42.3858" lon="0.1506">
        <ele>740.2</ele>
        <time>2017-07-02T10:12:01Z</time>
      </trkpt>
      <trkpt lat="42.38578" lon="0.15064">
        <ele>740.2</ele>
        <time>2017-07-02T10:12:03Z</time>
      </trkpt>
      <trkpt lat="42.38573" lon="0.15066">
        <ele>740.2</ele>
        <time>2017-07-02T10:12:05Z</time>
      </trkpt>
      <trkpt lat="42.3857" lon="0.15067">
        <ele>740.2</ele>
        <time>2017-07-02T10:12:06Z</time>
      </trkpt>
      <trkpt lat="42.38567" lon="0.15068">
        <ele>740.2</ele>
        <time>2017-07-02T10:12:07Z</time>
      </trkpt>
      <trkpt lat="42.38563" lon="0.1507">
        <ele>740.2</ele>
        <time>2017-07-02T10:12:08Z</time>
      </trkpt>
      <trkpt lat="42.3856" lon="0.15071">
        <ele>740.3</ele>
        <time>2017-07-02T10:12:09Z</time>
      </trkpt>
      <trkpt lat="42.38556" lon="0.15073">
        <ele>740.4</ele>
        <time>2017-07-02T10:12:10Z</time>
      </trkpt>
      <trkpt lat="42.38553" lon="0.15075">
        <ele>740.6</ele>
        <time>2017-07-02T10:12:11Z</time>
      </trkpt>
      <trkpt lat="42.3855" lon="0.15076">
        <ele>740.9</ele>
        <time>2017-07-02T10:12:12Z</time>
      </trkpt>
      <trkpt lat="42.38547" lon="0.15077">
        <ele>741.2</ele>
        <time>2017-07-02T10:12:14Z</time>
      </trkpt>
      <trkpt lat="42.38544" lon="0.15076">
        <ele>741.3</ele>
        <time>2017-07-02T10:12:16Z</time>
      </trkpt>
      <trkpt lat="42.3854" lon="0.15077">
        <ele>741.4</ele>
        <time>2017-07-02T10:12:18Z</time>
      </trkpt>
      <trkpt lat="42.38535" lon="0.1508">
        <ele>741.5</ele>
        <time>2017-07-02T10:12:20Z</time>
      </trkpt>
      <trkpt lat="42.3853" lon="0.15082">
        <ele>741.5</ele>
        <time>2017-07-02T10:12:22Z</time>
      </trkpt>
      <trkpt lat="42.38526" lon="0.15083">
        <ele>741.6</ele>
        <time>2017-07-02T10:12:24Z</time>
      </trkpt>
      <trkpt lat="42.38522" lon="0.15084">
        <ele>741.6</ele>
        <time>2017-07-02T10:12:26Z</time>
      </trkpt>
      <trkpt lat="42.38517" lon="0.15086">
        <ele>741.6</ele>
        <time>2017-07-02T10:12:28Z</time>
      </trkpt>
      <trkpt lat="42.38513" lon="0.15088">
        <ele>741.6</ele>
        <time>2017-07-02T10:12:30Z</time>
      </trkpt>
      <trkpt lat="42.38509" lon="0.15091">
        <ele>741.5</ele>
        <time>2017-07-02T10:12:32Z</time>
      </trkpt>
      <trkpt lat="42.38506" lon="0.15093">
        <ele>741.5</ele>
        <time>2017-07-02T10:12:34Z</time>
      </trkpt>
      <trkpt lat="42.38502" lon="0.15095">
        <ele>741.5</ele>
        <time>2017-07-02T10:12:36Z</time>
      </trkpt>
      <trkpt lat="42.38498" lon="0.15095">
        <ele>741.5</ele>
        <time>2017-07-02T10:12:38Z</time>
      </trkpt>
      <trkpt lat="42.38494" lon="0.15094">
        <ele>741.5</ele>
        <time>2017-07-02T10:12:39Z</time>
      </trkpt>
      <trkpt lat="42.38491" lon="0.15092">
        <ele>741.4</ele>
        <time>2017-07-02T10:12:40Z</time>
      </trkpt>
      <trkpt lat="42.38488" lon="0.1509">
        <ele>741.4</ele>
        <time>2017-07-02T10:12:41Z</time>
      </trkpt>
      <trkpt lat="42.38484" lon="0.15089">
        <ele>741.4</ele>
        <time>2017-07-02T10:12:42Z</time>
      </trkpt>
      <trkpt lat="42.38481" lon="0.15089">
        <ele>741.4</ele>
        <time>2017-07-02T10:12:43Z</time>
      </trkpt>
      <trkpt lat="42.38476" lon="0.1509">
        <ele>741.3</ele>
        <time>2017-07-02T10:12:45Z</time>
      </trkpt>
      <trkpt lat="42.38472" lon="0.15092">
        <ele>741.3</ele>
        <time>2017-07-02T10:12:47Z</time>
      </trkpt>
      <trkpt lat="42.38469" lon="0.15094">
        <ele>741.3</ele>
        <time>2017-07-02T10:12:49Z</time>
      </trkpt>
      <trkpt lat="42.38464" lon="0.15094">
        <ele>741</ele>
        <time>2017-07-02T10:12:51Z</time>
      </trkpt>
      <trkpt lat="42.3846" lon="0.15095">
        <ele>740.4</ele>
        <time>2017-07-02T10:12:52Z</time>
      </trkpt>
      <trkpt lat="42.38457" lon="0.15096">
        <ele>740</ele>
        <time>2017-07-02T10:12:53Z</time>
      </trkpt>
      <trkpt lat="42.38454" lon="0.15099">
        <ele>739.8</ele>
        <time>2017-07-02T10:12:54Z</time>
      </trkpt>
      <trkpt lat="42.38451" lon="0.15102">
        <ele>739.5</ele>
        <time>2017-07-02T10:12:55Z</time>
      </trkpt>
      <trkpt lat="42.38448" lon="0.15106">
        <ele>739.6</ele>
        <time>2017-07-02T10:12:57Z</time>
      </trkpt>
      <trkpt lat="42.38443" lon="0.15109">
        <ele>739.8</ele>
        <time>2017-07-02T10:12:59Z</time>
      </trkpt>
      <trkpt lat="42.3844" lon="0.15111">
        <ele>740.1</ele>
        <time>2017-07-02T10:13:00Z</time>
      </trkpt>
      <trkpt lat="42.38437" lon="0.15113">
        <ele>740</ele>
        <time>2017-07-02T10:13:01Z</time>
      </trkpt>
      <trkpt lat="42.38434" lon="0.15116">
        <ele>740.4</ele>
        <time>2017-07-02T10:13:02Z</time>
      </trkpt>
      <trkpt lat="42.38431" lon="0.15118">
        <ele>740.3</ele>
        <time>2017-07-02T10:13:03Z</time>
      </trkpt>
      <trkpt lat="42.38428" lon="0.15121">
        <ele>740.7</ele>
        <time>2017-07-02T10:13:04Z</time>
      </trkpt>
      <trkpt lat="42.38425" lon="0.15123">
        <ele>740.5</ele>
        <time>2017-07-02T10:13:05Z</time>
      </trkpt>
      <trkpt lat="42.38422" lon="0.15126">
        <ele>740.7</ele>
        <time>2017-07-02T10:13:06Z</time>
      </trkpt>
      <trkpt lat="42.3842" lon="0.15128">
        <ele>741</ele>
        <time>2017-07-02T10:13:07Z</time>
      </trkpt>
      <trkpt lat="42.38417" lon="0.15132">
        <ele>741</ele>
        <time>2017-07-02T10:13:09Z</time>
      </trkpt>
      <trkpt lat="42.38414" lon="0.15135">
        <ele>740.6</ele>
        <time>2017-07-02T10:13:11Z</time>
      </trkpt>
      <trkpt lat="42.38412" lon="0.15136">
        <ele>740.5</ele>
        <time>2017-07-02T10:13:13Z</time>
      </trkpt>
      <trkpt lat="42.38409" lon="0.15139">
        <ele>740</ele>
        <time>2017-07-02T10:13:15Z</time>
      </trkpt>
      <trkpt lat="42.38406" lon="0.15142">
        <ele>739.7</ele>
        <time>2017-07-02T10:13:18Z</time>
      </trkpt>
      <trkpt lat="42.38403" lon="0.15144">
        <ele>739.1</ele>
        <time>2017-07-02T10:13:35Z</time>
      </trkpt>
      <trkpt lat="42.38401" lon="0.15145">
        <ele>739.4</ele>
        <time>2017-07-02T10:13:41Z</time>
      </trkpt>
      <trkpt lat="42.38398" lon="0.15147">
        <ele>738.8</ele>
        <time>2017-07-02T10:13:45Z</time>
      </trkpt>
      <trkpt lat="42.38396" lon="0.15149">
        <ele>738.1</ele>
        <time>2017-07-02T10:13:49Z</time>
      </trkpt>
      <trkpt lat="42.38392" lon="0.15145">
        <ele>737.6</ele>
        <time>2017-07-02T10:13:53Z</time>
      </trkpt>
      <trkpt lat="42.38388" lon="0.15147">
        <ele>737.1</ele>
        <time>2017-07-02T10:13:55Z</time>
      </trkpt>
      <trkpt lat="42.38385" lon="0.15149">
        <ele>737</ele>
        <time>2017-07-02T10:13:56Z</time>
      </trkpt>
      <trkpt lat="42.38382" lon="0.15152">
        <ele>736.6</ele>
        <time>2017-07-02T10:13:57Z</time>
      </trkpt>
      <trkpt lat="42.38379" lon="0.15154">
        <ele>736.4</ele>
        <time>2017-07-02T10:13:58Z</time>
      </trkpt>
      <trkpt lat="42.38375" lon="0.15155">
        <ele>735.8</ele>
        <time>2017-07-02T10:13:59Z</time>
      </trkpt>
      <trkpt lat="42.38371" lon="0.15156">
        <ele>735.4</ele>
        <time>2017-07-02T10:14:00Z</time>
      </trkpt>
      <trkpt lat="42.38367" lon="0.15155">
        <ele>735</ele>
        <time>2017-07-02T10:14:02Z</time>
      </trkpt>
      <trkpt lat="42.38363" lon="0.15155">
        <ele>734.6</ele>
        <time>2017-07-02T10:14:04Z</time>
      </trkpt>
      <trkpt lat="42.3836" lon="0.15155">
        <ele>734.2</ele>
        <time>2017-07-02T10:14:06Z</time>
      </trkpt>
      <trkpt lat="42.38357" lon="0.15157">
        <ele>733.7</ele>
        <time>2017-07-02T10:14:08Z</time>
      </trkpt>
      <trkpt lat="42.38354" lon="0.15161">
        <ele>733.4</ele>
        <time>2017-07-02T10:14:10Z</time>
      </trkpt>
      <trkpt lat="42.38352" lon="0.15164">
        <ele>733</ele>
        <time>2017-07-02T10:14:11Z</time>
      </trkpt>
      <trkpt lat="42.3835" lon="0.15167">
        <ele>733</ele>
        <time>2017-07-02T10:14:12Z</time>
      </trkpt>
      <trkpt lat="42.38348" lon="0.15169">
        <ele>732.4</ele>
        <time>2017-07-02T10:14:13Z</time>
      </trkpt>
      <trkpt lat="42.38345" lon="0.15172">
        <ele>731.9</ele>
        <time>2017-07-02T10:14:14Z</time>
      </trkpt>
      <trkpt lat="42.38343" lon="0.15175">
        <ele>731.2</ele>
        <time>2017-07-02T10:14:15Z</time>
      </trkpt>
      <trkpt lat="42.3834" lon="0.15178">
        <ele>731.5</ele>
        <time>2017-07-02T10:14:16Z</time>
      </trkpt>
      <trkpt lat="42.38338" lon="0.15181">
        <ele>731.3</ele>
        <time>2017-07-02T10:14:17Z</time>
      </trkpt>
      <trkpt lat="42.38336" lon="0.15184">
        <ele>731.2</ele>
        <time>2017-07-02T10:14:18Z</time>
      </trkpt>
      <trkpt lat="42.38334" lon="0.15189">
        <ele>731.5</ele>
        <time>2017-07-02T10:14:19Z</time>
      </trkpt>
      <trkpt lat="42.38333" lon="0.15192">
        <ele>730.9</ele>
        <time>2017-07-02T10:14:20Z</time>
      </trkpt>
      <trkpt lat="42.38331" lon="0.15198">
        <ele>731.6</ele>
        <time>2017-07-02T10:14:22Z</time>
      </trkpt>
      <trkpt lat="42.38331" lon="0.15202">
        <ele>731.8</ele>
        <time>2017-07-02T10:14:23Z</time>
      </trkpt>
      <trkpt lat="42.38331" lon="0.15207">
        <ele>732.1</ele>
        <time>2017-07-02T10:14:24Z</time>
      </trkpt>
      <trkpt lat="42.3833" lon="0.15212">
        <ele>732.6</ele>
        <time>2017-07-02T10:14:25Z</time>
      </trkpt>
      <trkpt lat="42.38329" lon="0.15216">
        <ele>732.9</ele>
        <time>2017-07-02T10:14:26Z</time>
      </trkpt>
      <trkpt lat="42.38327" lon="0.15222">
        <ele>733.4</ele>
        <time>2017-07-02T10:14:28Z</time>
      </trkpt>
      <trkpt lat="42.38327" lon="0.15226">
        <ele>733.8</ele>
        <time>2017-07-02T10:14:31Z</time>
      </trkpt>
      <trkpt lat="42.38325" lon="0.1523">
        <ele>734.2</ele>
        <time>2017-07-02T10:14:33Z</time>
      </trkpt>
      <trkpt lat="42.38323" lon="0.15235">
        <ele>734.5</ele>
        <time>2017-07-02T10:14:35Z</time>
      </trkpt>
      <trkpt lat="42.38321" lon="0.15238">
        <ele>734.6</ele>
        <time>2017-07-02T10:14:39Z</time>
      </trkpt>
      <trkpt lat="42.3832" lon="0.15241">
        <ele>734.8</ele>
        <time>2017-07-02T10:14:45Z</time>
      </trkpt>
      <trkpt lat="42.38319" lon="0.15245">
        <ele>735</ele>
        <time>2017-07-02T10:14:47Z</time>
      </trkpt>
      <trkpt lat="42.38318" lon="0.1525">
        <ele>735.4</ele>
        <time>2017-07-02T10:14:49Z</time>
      </trkpt>
      <trkpt lat="42.38317" lon="0.15254">
        <ele>735.8</ele>
        <time>2017-07-02T10:14:52Z</time>
      </trkpt>
      <trkpt lat="42.38315" lon="0.15256">
        <ele>736</ele>
        <time>2017-07-02T10:14:54Z</time>
      </trkpt>
      <trkpt lat="42.38312" lon="0.15258">
        <ele>736.2</ele>
        <time>2017-07-02T10:14:56Z</time>
      </trkpt>
      <trkpt lat="42.3831" lon="0.1526">
        <ele>736.4</ele>
        <time>2017-07-02T10:14:58Z</time>
      </trkpt>
      <trkpt lat="42.38307" lon="0.15263">
        <ele>736.5</ele>
        <time>2017-07-02T10:15:01Z</time>
      </trkpt>
      <trkpt lat="42.38303" lon="0.15265">
        <ele>736.8</ele>
        <time>2017-07-02T10:15:03Z</time>
      </trkpt>
      <trkpt lat="42.383" lon="0.15268">
        <ele>737.4</ele>
        <time>2017-07-02T10:15:05Z</time>
      </trkpt>
      <trkpt lat="42.38297" lon="0.1527">
        <ele>738</ele>
        <time>2017-07-02T10:15:07Z</time>
      </trkpt>
      <trkpt lat="42.38296" lon="0.15273">
        <ele>738.7</ele>
        <time>2017-07-02T10:15:10Z</time>
      </trkpt>
      <trkpt lat="42.38293" lon="0.15276">
        <ele>739.2</ele>
        <time>2017-07-02T10:15:18Z</time>
      </trkpt>
      <trkpt lat="42.38291" lon="0.15278">
        <ele>739.3</ele>
        <time>2017-07-02T10:15:24Z</time>
      </trkpt>
      <trkpt lat="42.38289" lon="0.15281">
        <ele>739.4</ele>
        <time>2017-07-02T10:15:28Z</time>
      </trkpt>
      <trkpt lat="42.38286" lon="0.15283">
        <ele>739.4</ele>
        <time>2017-07-02T10:15:36Z</time>
      </trkpt>
      <trkpt lat="42.38285" lon="0.15287">
        <ele>739.5</ele>
        <time>2017-07-02T10:15:51Z</time>
      </trkpt>
      <trkpt lat="42.38284" lon="0.1529">
        <ele>739.5</ele>
        <time>2017-07-02T10:15:55Z</time>
      </trkpt>
      <trkpt lat="42.38281" lon="0.15293">
        <ele>739.5</ele>
        <time>2017-07-02T10:16:00Z</time>
      </trkpt>
      <trkpt lat="42.38284" lon="0.15291">
        <ele>739.5</ele>
        <time>2017-07-02T10:18:04Z</time>
      </trkpt>
      <trkpt lat="42.38287" lon="0.15291">
        <ele>739.4</ele>
        <time>2017-07-02T10:18:11Z</time>
      </trkpt>
      <trkpt lat="42.38285" lon="0.15293">
        <ele>739.4</ele>
        <time>2017-07-02T10:18:18Z</time>
      </trkpt>
      <trkpt lat="42.38283" lon="0.15296">
        <ele>739.3</ele>
        <time>2017-07-02T10:18:23Z</time>
      </trkpt>
      <trkpt lat="42.38281" lon="0.15292">
        <ele>739.2</ele>
        <time>2017-07-02T10:20:39Z</time>
      </trkpt>
      <trkpt lat="42.38281" lon="0.15282">
        <ele>739.1</ele>
        <time>2017-07-02T10:22:05Z</time>
      </trkpt>
      <trkpt lat="42.38278" lon="0.15284">
        <ele>738.9</ele>
        <time>2017-07-02T10:22:07Z</time>
      </trkpt>
      <trkpt lat="42.38275" lon="0.15288">
        <ele>738.8</ele>
        <time>2017-07-02T10:22:09Z</time>
      </trkpt>
      <trkpt lat="42.38271" lon="0.15291">
        <ele>738.6</ele>
        <time>2017-07-02T10:22:11Z</time>
      </trkpt>
      <trkpt lat="42.38267" lon="0.15295">
        <ele>738.3</ele>
        <time>2017-07-02T10:22:13Z</time>
      </trkpt>
      <trkpt lat="42.38265" lon="0.15298">
        <ele>738.1</ele>
        <time>2017-07-02T10:22:14Z</time>
      </trkpt>
      <trkpt lat="42.38262" lon="0.153">
        <ele>737.8</ele>
        <time>2017-07-02T10:22:15Z</time>
      </trkpt>
      <trkpt lat="42.38259" lon="0.15302">
        <ele>737.6</ele>
        <time>2017-07-02T10:22:16Z</time>
      </trkpt>
      <trkpt lat="42.38255" lon="0.15303">
        <ele>737.3</ele>
        <time>2017-07-02T10:22:17Z</time>
      </trkpt>
      <trkpt lat="42.38252" lon="0.15303">
        <ele>737</ele>
        <time>2017-07-02T10:22:18Z</time>
      </trkpt>
      <trkpt lat="42.38249" lon="0.15304">
        <ele>736.8</ele>
        <time>2017-07-02T10:22:19Z</time>
      </trkpt>
      <trkpt lat="42.38247" lon="0.15305">
        <ele>736.5</ele>
        <time>2017-07-02T10:22:20Z</time>
      </trkpt>
      <trkpt lat="42.38244" lon="0.15307">
        <ele>736.2</ele>
        <time>2017-07-02T10:22:21Z</time>
      </trkpt>
      <trkpt lat="42.38241" lon="0.15308">
        <ele>735.9</ele>
        <time>2017-07-02T10:22:22Z</time>
      </trkpt>
      <trkpt lat="42.38238" lon="0.1531">
        <ele>735.6</ele>
        <time>2017-07-02T10:22:23Z</time>
      </trkpt>
      <trkpt lat="42.38235" lon="0.15311">
        <ele>735.2</ele>
        <time>2017-07-02T10:22:24Z</time>
      </trkpt>
      <trkpt lat="42.38232" lon="0.15313">
        <ele>734.8</ele>
        <time>2017-07-02T10:22:25Z</time>
      </trkpt>
      <trkpt lat="42.38229" lon="0.15313">
        <ele>734.4</ele>
        <time>2017-07-02T10:22:26Z</time>
      </trkpt>
      <trkpt lat="42.38226" lon="0.15314">
        <ele>734</ele>
        <time>2017-07-02T10:22:27Z</time>
      </trkpt>
      <trkpt lat="42.38224" lon="0.15315">
        <ele>733.6</ele>
        <time>2017-07-02T10:22:28Z</time>
      </trkpt>
      <trkpt lat="42.3822" lon="0.15317">
        <ele>733</ele>
        <time>2017-07-02T10:22:30Z</time>
      </trkpt>
      <trkpt lat="42.38218" lon="0.15321">
        <ele>732.7</ele>
        <time>2017-07-02T10:22:32Z</time>
      </trkpt>
      <trkpt lat="42.38218" lon="0.15327">
        <ele>732.3</ele>
        <time>2017-07-02T10:22:34Z</time>
      </trkpt>
      <trkpt lat="42.38216" lon="0.15331">
        <ele>731.9</ele>
        <time>2017-07-02T10:22:36Z</time>
      </trkpt>
      <trkpt lat="42.38213" lon="0.15331">
        <ele>731.3</ele>
        <time>2017-07-02T10:22:38Z</time>
      </trkpt>
      <trkpt lat="42.3821" lon="0.15329">
        <ele>730.7</ele>
        <time>2017-07-02T10:22:40Z</time>
      </trkpt>
      <trkpt lat="42.38207" lon="0.15327">
        <ele>729.6</ele>
        <time>2017-07-02T10:22:42Z</time>
      </trkpt>
      <trkpt lat="42.38204" lon="0.15325">
        <ele>729.2</ele>
        <time>2017-07-02T10:22:44Z</time>
      </trkpt>
      <trkpt lat="42.38199" lon="0.15323">
        <ele>728.6</ele>
        <time>2017-07-02T10:22:46Z</time>
      </trkpt>
      <trkpt lat="42.38196" lon="0.15319">
        <ele>728.7</ele>
        <time>2017-07-02T10:22:49Z</time>
      </trkpt>
      <trkpt lat="42.38197" lon="0.15314">
        <ele>728.7</ele>
        <time>2017-07-02T10:22:51Z</time>
      </trkpt>
      <trkpt lat="42.38198" lon="0.15309">
        <ele>729.2</ele>
        <time>2017-07-02T10:22:54Z</time>
      </trkpt>
      <trkpt lat="42.38194" lon="0.15307">
        <ele>727.4</ele>
        <time>2017-07-02T10:22:57Z</time>
      </trkpt>
      <trkpt lat="42.38191" lon="0.15305">
        <ele>726.7</ele>
        <time>2017-07-02T10:22:59Z</time>
      </trkpt>
      <trkpt lat="42.3819" lon="0.153">
        <ele>726.3</ele>
        <time>2017-07-02T10:23:01Z</time>
      </trkpt>
      <trkpt lat="42.38188" lon="0.15295">
        <ele>726.4</ele>
        <time>2017-07-02T10:23:03Z</time>
      </trkpt>
      <trkpt lat="42.38187" lon="0.15289">
        <ele>725.5</ele>
        <time>2017-07-02T10:23:05Z</time>
      </trkpt>
      <trkpt lat="42.38186" lon="0.15283">
        <ele>725.5</ele>
        <time>2017-07-02T10:23:07Z</time>
      </trkpt>
      <trkpt lat="42.38186" lon="0.15275">
        <ele>724.9</ele>
        <time>2017-07-02T10:23:09Z</time>
      </trkpt>
      <trkpt lat="42.38187" lon="0.15271">
        <ele>724.5</ele>
        <time>2017-07-02T10:23:10Z</time>
      </trkpt>
      <trkpt lat="42.38188" lon="0.15267">
        <ele>724</ele>
        <time>2017-07-02T10:23:11Z</time>
      </trkpt>
      <trkpt lat="42.38191" lon="0.15262">
        <ele>724.4</ele>
        <time>2017-07-02T10:23:13Z</time>
      </trkpt>
      <trkpt lat="42.38192" lon="0.15259">
        <ele>724.8</ele>
        <time>2017-07-02T10:23:14Z</time>
      </trkpt>
      <trkpt lat="42.38196" lon="0.15254">
        <ele>725.1</ele>
        <time>2017-07-02T10:23:16Z</time>
      </trkpt>
      <trkpt lat="42.382" lon="0.1525">
        <ele>725.5</ele>
        <time>2017-07-02T10:23:18Z</time>
      </trkpt>
      <trkpt lat="42.38204" lon="0.15247">
        <ele>726.8</ele>
        <time>2017-07-02T10:23:20Z</time>
      </trkpt>
      <trkpt lat="42.38207" lon="0.15243">
        <ele>725.9</ele>
        <time>2017-07-02T10:23:22Z</time>
      </trkpt>
      <trkpt lat="42.38209" lon="0.15235">
        <ele>724.9</ele>
        <time>2017-07-02T10:23:24Z</time>
      </trkpt>
      <trkpt lat="42.3821" lon="0.15231">
        <ele>723.9</ele>
        <time>2017-07-02T10:23:25Z</time>
      </trkpt>
      <trkpt lat="42.38211" lon="0.15227">
        <ele>724.6</ele>
        <time>2017-07-02T10:23:26Z</time>
      </trkpt>
      <trkpt lat="42.38213" lon="0.15223">
        <ele>723.7</ele>
        <time>2017-07-02T10:23:27Z</time>
      </trkpt>
      <trkpt lat="42.38216" lon="0.1522">
        <ele>723.4</ele>
        <time>2017-07-02T10:23:28Z</time>
      </trkpt>
      <trkpt lat="42.38219" lon="0.15218">
        <ele>722.9</ele>
        <time>2017-07-02T10:23:29Z</time>
      </trkpt>
      <trkpt lat="42.38222" lon="0.15216">
        <ele>723.2</ele>
        <time>2017-07-02T10:23:30Z</time>
      </trkpt>
      <trkpt lat="42.38224" lon="0.15216">
        <ele>723.4</ele>
        <time>2017-07-02T10:23:31Z</time>
      </trkpt>
      <trkpt lat="42.38229" lon="0.15214">
        <ele>724.3</ele>
        <time>2017-07-02T10:23:33Z</time>
      </trkpt>
      <trkpt lat="42.38234" lon="0.15212">
        <ele>723.6</ele>
        <time>2017-07-02T10:23:35Z</time>
      </trkpt>
      <trkpt lat="42.38238" lon="0.15212">
        <ele>724.1</ele>
        <time>2017-07-02T10:23:37Z</time>
      </trkpt>
      <trkpt lat="42.38243" lon="0.15212">
        <ele>725</ele>
        <time>2017-07-02T10:23:41Z</time>
      </trkpt>
      <trkpt lat="42.38248" lon="0.15214">
        <ele>726.9</ele>
        <time>2017-07-02T10:23:43Z</time>
      </trkpt>
      <trkpt lat="42.38252" lon="0.15214">
        <ele>727.5</ele>
        <time>2017-07-02T10:23:45Z</time>
      </trkpt>
      <trkpt lat="42.38254" lon="0.15213">
        <ele>725.9</ele>
        <time>2017-07-02T10:23:47Z</time>
      </trkpt>
      <trkpt lat="42.38256" lon="0.1521">
        <ele>726.2</ele>
        <time>2017-07-02T10:23:49Z</time>
      </trkpt>
      <trkpt lat="42.38259" lon="0.15206">
        <ele>724.9</ele>
        <time>2017-07-02T10:23:51Z</time>
      </trkpt>
      <trkpt lat="42.38262" lon="0.15201">
        <ele>722.5</ele>
        <time>2017-07-02T10:23:53Z</time>
      </trkpt>
      <trkpt lat="42.38266" lon="0.15197">
        <ele>723</ele>
        <time>2017-07-02T10:23:55Z</time>
      </trkpt>
      <trkpt lat="42.38266" lon="0.15193">
        <ele>721.8</ele>
        <time>2017-07-02T10:23:58Z</time>
      </trkpt>
      <trkpt lat="42.38263" lon="0.15188">
        <ele>720.2</ele>
        <time>2017-07-02T10:24:00Z</time>
      </trkpt>
      <trkpt lat="42.3826" lon="0.15185">
        <ele>718.6</ele>
        <time>2017-07-02T10:24:01Z</time>
      </trkpt>
      <trkpt lat="42.38257" lon="0.15182">
        <ele>717.2</ele>
        <time>2017-07-02T10:24:02Z</time>
      </trkpt>
      <trkpt lat="42.38253" lon="0.1518">
        <ele>716.9</ele>
        <time>2017-07-02T10:24:03Z</time>
      </trkpt>
      <trkpt lat="42.38251" lon="0.15179">
        <ele>715.7</ele>
        <time>2017-07-02T10:24:04Z</time>
      </trkpt>
      <trkpt lat="42.38247" lon="0.15177">
        <ele>715.6</ele>
        <time>2017-07-02T10:24:06Z</time>
      </trkpt>
      <trkpt lat="42.38247" lon="0.15173">
        <ele>714.7</ele>
        <time>2017-07-02T10:24:16Z</time>
      </trkpt>
      <trkpt lat="42.38249" lon="0.15169">
        <ele>713.9</ele>
        <time>2017-07-02T10:24:21Z</time>
      </trkpt>
      <trkpt lat="42.38248" lon="0.15166">
        <ele>713</ele>
        <time>2017-07-02T10:24:26Z</time>
      </trkpt>
      <trkpt lat="42.38244" lon="0.15165">
        <ele>712.8</ele>
        <time>2017-07-02T10:24:28Z</time>
      </trkpt>
      <trkpt lat="42.38239" lon="0.15164">
        <ele>712.4</ele>
        <time>2017-07-02T10:24:30Z</time>
      </trkpt>
      <trkpt lat="42.38234" lon="0.15162">
        <ele>711.7</ele>
        <time>2017-07-02T10:24:32Z</time>
      </trkpt>
      <trkpt lat="42.38231" lon="0.15162">
        <ele>710</ele>
        <time>2017-07-02T10:24:33Z</time>
      </trkpt>
      <trkpt lat="42.38226" lon="0.15162">
        <ele>709.4</ele>
        <time>2017-07-02T10:24:35Z</time>
      </trkpt>
      <trkpt lat="42.38224" lon="0.15162">
        <ele>710</ele>
        <time>2017-07-02T10:24:36Z</time>
      </trkpt>
      <trkpt lat="42.38219" lon="0.15163">
        <ele>708.6</ele>
        <time>2017-07-02T10:24:38Z</time>
      </trkpt>
      <trkpt lat="42.38216" lon="0.15162">
        <ele>706.3</ele>
        <time>2017-07-02T10:24:40Z</time>
      </trkpt>
      <trkpt lat="42.38215" lon="0.15158">
        <ele>706.2</ele>
        <time>2017-07-02T10:24:42Z</time>
      </trkpt>
      <trkpt lat="42.38213" lon="0.15152">
        <ele>702.2</ele>
        <time>2017-07-02T10:24:44Z</time>
      </trkpt>
      <trkpt lat="42.3821" lon="0.15148">
        <ele>699.7</ele>
        <time>2017-07-02T10:24:46Z</time>
      </trkpt>
      <trkpt lat="42.38207" lon="0.15145">
        <ele>698.6</ele>
        <time>2017-07-02T10:24:48Z</time>
      </trkpt>
      <trkpt lat="42.38204" lon="0.15141">
        <ele>696.5</ele>
        <time>2017-07-02T10:24:50Z</time>
      </trkpt>
      <trkpt lat="42.382" lon="0.15137">
        <ele>694.8</ele>
        <time>2017-07-02T10:24:52Z</time>
      </trkpt>
      <trkpt lat="42.38196" lon="0.15135">
        <ele>693.2</ele>
        <time>2017-07-02T10:24:54Z</time>
      </trkpt>
      <trkpt lat="42.38193" lon="0.15132">
        <ele>691.7</ele>
        <time>2017-07-02T10:24:56Z</time>
      </trkpt>
      <trkpt lat="42.38192" lon="0.15127">
        <ele>690.6</ele>
        <time>2017-07-02T10:24:58Z</time>
      </trkpt>
      <trkpt lat="42.38193" lon="0.15123">
        <ele>689.5</ele>
        <time>2017-07-02T10:25:00Z</time>
      </trkpt>
      <trkpt lat="42.38194" lon="0.15118">
        <ele>688.5</ele>
        <time>2017-07-02T10:25:02Z</time>
      </trkpt>
      <trkpt lat="42.38193" lon="0.15114">
        <ele>687.7</ele>
        <time>2017-07-02T10:25:04Z</time>
      </trkpt>
      <trkpt lat="42.38192" lon="0.15109">
        <ele>686.9</ele>
        <time>2017-07-02T10:25:07Z</time>
      </trkpt>
      <trkpt lat="42.38194" lon="0.15104">
        <ele>686</ele>
        <time>2017-07-02T10:25:09Z</time>
      </trkpt>
      <trkpt lat="42.38194" lon="0.15099">
        <ele>685</ele>
        <time>2017-07-02T10:25:11Z</time>
      </trkpt>
      <trkpt lat="42.38192" lon="0.15096">
        <ele>683.9</ele>
        <time>2017-07-02T10:25:13Z</time>
      </trkpt>
      <trkpt lat="42.38189" lon="0.15093">
        <ele>683.6</ele>
        <time>2017-07-02T10:25:15Z</time>
      </trkpt>
      <trkpt lat="42.38185" lon="0.15091">
        <ele>682.1</ele>
        <time>2017-07-02T10:25:17Z</time>
      </trkpt>
      <trkpt lat="42.38182" lon="0.15089">
        <ele>680.8</ele>
        <time>2017-07-02T10:25:18Z</time>
      </trkpt>
      <trkpt lat="42.38178" lon="0.15087">
        <ele>679.9</ele>
        <time>2017-07-02T10:25:19Z</time>
      </trkpt>
      <trkpt lat="42.38173" lon="0.15087">
        <ele>679.5</ele>
        <time>2017-07-02T10:25:20Z</time>
      </trkpt>
      <trkpt lat="42.38169" lon="0.15088">
        <ele>679.1</ele>
        <time>2017-07-02T10:25:21Z</time>
      </trkpt>
      <trkpt lat="42.38166" lon="0.1509">
        <ele>679.5</ele>
        <time>2017-07-02T10:25:22Z</time>
      </trkpt>
      <trkpt lat="42.38163" lon="0.15092">
        <ele>678.7</ele>
        <time>2017-07-02T10:25:23Z</time>
      </trkpt>
      <trkpt lat="42.3816" lon="0.15093">
        <ele>678</ele>
        <time>2017-07-02T10:25:24Z</time>
      </trkpt>
      <trkpt lat="42.38156" lon="0.15092">
        <ele>677.1</ele>
        <time>2017-07-02T10:25:26Z</time>
      </trkpt>
      <trkpt lat="42.38154" lon="0.1509">
        <ele>676.4</ele>
        <time>2017-07-02T10:25:28Z</time>
      </trkpt>
      <trkpt lat="42.3815" lon="0.1509">
        <ele>675.7</ele>
        <time>2017-07-02T10:25:30Z</time>
      </trkpt>
      <trkpt lat="42.38147" lon="0.15089">
        <ele>674.8</ele>
        <time>2017-07-02T10:25:33Z</time>
      </trkpt>
      <trkpt lat="42.38144" lon="0.15089">
        <ele>674.1</ele>
        <time>2017-07-02T10:25:35Z</time>
      </trkpt>
      <trkpt lat="42.3814" lon="0.15092">
        <ele>673.1</ele>
        <time>2017-07-02T10:25:37Z</time>
      </trkpt>
      <trkpt lat="42.38136" lon="0.15092">
        <ele>672</ele>
        <time>2017-07-02T10:25:39Z</time>
      </trkpt>
      <trkpt lat="42.38131" lon="0.15089">
        <ele>671</ele>
        <time>2017-07-02T10:25:41Z</time>
      </trkpt>
      <trkpt lat="42.38128" lon="0.15087">
        <ele>670.4</ele>
        <time>2017-07-02T10:25:42Z</time>
      </trkpt>
      <trkpt lat="42.38125" lon="0.15085">
        <ele>669.4</ele>
        <time>2017-07-02T10:25:44Z</time>
      </trkpt>
      <trkpt lat="42.38121" lon="0.15086">
        <ele>668.5</ele>
        <time>2017-07-02T10:25:46Z</time>
      </trkpt>
      <trkpt lat="42.38118" lon="0.15088">
        <ele>667.5</ele>
        <time>2017-07-02T10:25:48Z</time>
      </trkpt>
      <trkpt lat="42.38114" lon="0.15088">
        <ele>666.2</ele>
        <time>2017-07-02T10:25:51Z</time>
      </trkpt>
      <trkpt lat="42.38114" lon="0.15084">
        <ele>665.2</ele>
        <time>2017-07-02T10:25:54Z</time>
      </trkpt>
      <trkpt lat="42.38116" lon="0.15079">
        <ele>663.7</ele>
        <time>2017-07-02T10:25:56Z</time>
      </trkpt>
      <trkpt lat="42.38116" lon="0.15074">
        <ele>662.6</ele>
        <time>2017-07-02T10:25:58Z</time>
      </trkpt>
      <trkpt lat="42.38113" lon="0.15071">
        <ele>661.8</ele>
        <time>2017-07-02T10:26:00Z</time>
      </trkpt>
      <trkpt lat="42.3811" lon="0.1507">
        <ele>661</ele>
        <time>2017-07-02T10:26:02Z</time>
      </trkpt>
      <trkpt lat="42.38105" lon="0.15071">
        <ele>660.1</ele>
        <time>2017-07-02T10:26:04Z</time>
      </trkpt>
      <trkpt lat="42.381" lon="0.15071">
        <ele>658.9</ele>
        <time>2017-07-02T10:26:06Z</time>
      </trkpt>
      <trkpt lat="42.38097" lon="0.15071">
        <ele>658.1</ele>
        <time>2017-07-02T10:26:08Z</time>
      </trkpt>
      <trkpt lat="42.38093" lon="0.15071">
        <ele>657.1</ele>
        <time>2017-07-02T10:26:10Z</time>
      </trkpt>
      <trkpt lat="42.38088" lon="0.15069">
        <ele>656.1</ele>
        <time>2017-07-02T10:26:12Z</time>
      </trkpt>
      <trkpt lat="42.38084" lon="0.15068">
        <ele>655.2</ele>
        <time>2017-07-02T10:26:14Z</time>
      </trkpt>
      <trkpt lat="42.38079" lon="0.15067">
        <ele>654.2</ele>
        <time>2017-07-02T10:26:16Z</time>
      </trkpt>
      <trkpt lat="42.38076" lon="0.15067">
        <ele>653.4</ele>
        <time>2017-07-02T10:26:18Z</time>
      </trkpt>
      <trkpt lat="42.38073" lon="0.15068">
        <ele>652.7</ele>
        <time>2017-07-02T10:26:19Z</time>
      </trkpt>
      <trkpt lat="42.3807" lon="0.15068">
        <ele>652</ele>
        <time>2017-07-02T10:26:20Z</time>
      </trkpt>
      <trkpt lat="42.38065" lon="0.15067">
        <ele>650.6</ele>
        <time>2017-07-02T10:26:22Z</time>
      </trkpt>
      <trkpt lat="42.38061" lon="0.15064">
        <ele>649.4</ele>
        <time>2017-07-02T10:26:24Z</time>
      </trkpt>
      <trkpt lat="42.38059" lon="0.15058">
        <ele>647.9</ele>
        <time>2017-07-02T10:26:26Z</time>
      </trkpt>
      <trkpt lat="42.38057" lon="0.15055">
        <ele>647.1</ele>
        <time>2017-07-02T10:26:27Z</time>
      </trkpt>
      <trkpt lat="42.38055" lon="0.15051">
        <ele>645.9</ele>
        <time>2017-07-02T10:26:29Z</time>
      </trkpt>
      <trkpt lat="42.38059" lon="0.15049">
        <ele>644.5</ele>
        <time>2017-07-02T10:26:39Z</time>
      </trkpt>
      <trkpt lat="42.38061" lon="0.15052">
        <ele>643.4</ele>
        <time>2017-07-02T10:27:09Z</time>
      </trkpt>
      <trkpt lat="42.38058" lon="0.15053">
        <ele>642.4</ele>
        <time>2017-07-02T10:27:18Z</time>
      </trkpt>
      <trkpt lat="42.38056" lon="0.1505">
        <ele>641.1</ele>
        <time>2017-07-02T10:27:23Z</time>
      </trkpt>
      <trkpt lat="42.38053" lon="0.15049">
        <ele>640.1</ele>
        <time>2017-07-02T10:27:27Z</time>
      </trkpt>
      <trkpt lat="42.38052" lon="0.15046">
        <ele>639.5</ele>
        <time>2017-07-02T10:27:32Z</time>
      </trkpt>
      <trkpt lat="42.38051" lon="0.15042">
        <ele>638.9</ele>
        <time>2017-07-02T10:27:37Z</time>
      </trkpt>
      <trkpt lat="42.38048" lon="0.15041">
        <ele>638.2</ele>
        <time>2017-07-02T10:27:44Z</time>
      </trkpt>
      <trkpt lat="42.38044" lon="0.15042">
        <ele>637.3</ele>
        <time>2017-07-02T10:27:55Z</time>
      </trkpt>
      <trkpt lat="42.38043" lon="0.15045">
        <ele>636.4</ele>
        <time>2017-07-02T10:28:03Z</time>
      </trkpt>
      <trkpt lat="42.3804" lon="0.15044">
        <ele>635.3</ele>
        <time>2017-07-02T10:28:26Z</time>
      </trkpt>
      <trkpt lat="42.38037" lon="0.15042">
        <ele>634.3</ele>
        <time>2017-07-02T10:28:31Z</time>
      </trkpt>
      <trkpt lat="42.38036" lon="0.15039">
        <ele>633.4</ele>
        <time>2017-07-02T10:28:37Z</time>
      </trkpt>
      <trkpt lat="42.38035" lon="0.15035">
        <ele>632.5</ele>
        <time>2017-07-02T10:28:42Z</time>
      </trkpt>
      <trkpt lat="42.38033" lon="0.15032">
        <ele>631.8</ele>
        <time>2017-07-02T10:28:46Z</time>
      </trkpt>
      <trkpt lat="42.38031" lon="0.15034">
        <ele>630.9</ele>
        <time>2017-07-02T10:28:54Z</time>
      </trkpt>
      <trkpt lat="42.3803" lon="0.15039">
        <ele>629.8</ele>
        <time>2017-07-02T10:28:56Z</time>
      </trkpt>
      <trkpt lat="42.3803" lon="0.15042">
        <ele>628.9</ele>
        <time>2017-07-02T10:28:57Z</time>
      </trkpt>
      <trkpt lat="42.3803" lon="0.15046">
        <ele>627.9</ele>
        <time>2017-07-02T10:28:58Z</time>
      </trkpt>
      <trkpt lat="42.38029" lon="0.1505">
        <ele>626.9</ele>
        <time>2017-07-02T10:28:59Z</time>
      </trkpt>
      <trkpt lat="42.38028" lon="0.15054">
        <ele>625.9</ele>
        <time>2017-07-02T10:29:00Z</time>
      </trkpt>
      <trkpt lat="42.38026" lon="0.15058">
        <ele>625</ele>
        <time>2017-07-02T10:29:01Z</time>
      </trkpt>
      <trkpt lat="42.38024" lon="0.15061">
        <ele>622.6</ele>
        <time>2017-07-02T10:29:02Z</time>
      </trkpt>
      <trkpt lat="42.38022" lon="0.15063">
        <ele>622.4</ele>
        <time>2017-07-02T10:29:03Z</time>
      </trkpt>
      <trkpt lat="42.38019" lon="0.15065">
        <ele>622.2</ele>
        <time>2017-07-02T10:29:04Z</time>
      </trkpt>
      <trkpt lat="42.38016" lon="0.15067">
        <ele>622.1</ele>
        <time>2017-07-02T10:29:05Z</time>
      </trkpt>
      <trkpt lat="42.38013" lon="0.15069">
        <ele>621.9</ele>
        <time>2017-07-02T10:29:06Z</time>
      </trkpt>
      <trkpt lat="42.38011" lon="0.15074">
        <ele>621.4</ele>
        <time>2017-07-02T10:29:08Z</time>
      </trkpt>
      <trkpt lat="42.38008" lon="0.1508">
        <ele>620.8</ele>
        <time>2017-07-02T10:29:10Z</time>
      </trkpt>
      <trkpt lat="42.38006" lon="0.15083">
        <ele>620.5</ele>
        <time>2017-07-02T10:29:11Z</time>
      </trkpt>
      <trkpt lat="42.38004" lon="0.15086">
        <ele>620.2</ele>
        <time>2017-07-02T10:29:12Z</time>
      </trkpt>
      <trkpt lat="42.38003" lon="0.15089">
        <ele>620</ele>
        <time>2017-07-02T10:29:13Z</time>
      </trkpt>
      <trkpt lat="42.38001" lon="0.15094">
        <ele>619.8</ele>
        <time>2017-07-02T10:29:15Z</time>
      </trkpt>
      <trkpt lat="42.37998" lon="0.15098">
        <ele>619.5</ele>
        <time>2017-07-02T10:29:17Z</time>
      </trkpt>
      <trkpt lat="42.37996" lon="0.15103">
        <ele>619</ele>
        <time>2017-07-02T10:29:19Z</time>
      </trkpt>
      <trkpt lat="42.37994" lon="0.15107">
        <ele>618.7</ele>
        <time>2017-07-02T10:29:20Z</time>
      </trkpt>
      <trkpt lat="42.37993" lon="0.1511">
        <ele>618.3</ele>
        <time>2017-07-02T10:29:21Z</time>
      </trkpt>
      <trkpt lat="42.37991" lon="0.15115">
        <ele>617.8</ele>
        <time>2017-07-02T10:29:23Z</time>
      </trkpt>
      <trkpt lat="42.37993" lon="0.15118">
        <ele>617.4</ele>
        <time>2017-07-02T10:29:31Z</time>
      </trkpt>
      <trkpt lat="42.37995" lon="0.15122">
        <ele>617</ele>
        <time>2017-07-02T10:29:36Z</time>
      </trkpt>
      <trkpt lat="42.37997" lon="0.15125">
        <ele>616.5</ele>
        <time>2017-07-02T10:29:42Z</time>
      </trkpt>
      <trkpt lat="42.37999" lon="0.15128">
        <ele>615.9</ele>
        <time>2017-07-02T10:29:51Z</time>
      </trkpt>
      <trkpt lat="42.38" lon="0.15131">
        <ele>615.3</ele>
        <time>2017-07-02T10:29:58Z</time>
      </trkpt>
      <trkpt lat="42.37998" lon="0.15133">
        <ele>614.6</ele>
        <time>2017-07-02T10:30:08Z</time>
      </trkpt>
      <trkpt lat="42.37995" lon="0.15135">
        <ele>613.7</ele>
        <time>2017-07-02T10:30:17Z</time>
      </trkpt>
      <trkpt lat="42.37992" lon="0.15138">
        <ele>612.6</ele>
        <time>2017-07-02T10:30:22Z</time>
      </trkpt>
      <trkpt lat="42.3799" lon="0.15141">
        <ele>610.1</ele>
        <time>2017-07-02T10:30:25Z</time>
      </trkpt>
      <trkpt lat="42.37989" lon="0.15147">
        <ele>609.2</ele>
        <time>2017-07-02T10:30:27Z</time>
      </trkpt>
      <trkpt lat="42.37989" lon="0.15152">
        <ele>608.3</ele>
        <time>2017-07-02T10:30:29Z</time>
      </trkpt>
      <trkpt lat="42.37991" lon="0.15156">
        <ele>608</ele>
        <time>2017-07-02T10:30:33Z</time>
      </trkpt>
      <trkpt lat="42.37991" lon="0.15161">
        <ele>607.8</ele>
        <time>2017-07-02T10:30:38Z</time>
      </trkpt>
      <trkpt lat="42.3799" lon="0.15164">
        <ele>607.5</ele>
        <time>2017-07-02T10:30:41Z</time>
      </trkpt>
      <trkpt lat="42.37989" lon="0.15169">
        <ele>607.3</ele>
        <time>2017-07-02T10:30:43Z</time>
      </trkpt>
      <trkpt lat="42.3799" lon="0.15173">
        <ele>606.9</ele>
        <time>2017-07-02T10:30:46Z</time>
      </trkpt>
      <trkpt lat="42.37991" lon="0.15177">
        <ele>606.5</ele>
        <time>2017-07-02T10:30:49Z</time>
      </trkpt>
      <trkpt lat="42.37991" lon="0.15183">
        <ele>606</ele>
        <time>2017-07-02T10:30:51Z</time>
      </trkpt>
      <trkpt lat="42.37989" lon="0.1519">
        <ele>605.3</ele>
        <time>2017-07-02T10:30:53Z</time>
      </trkpt>
      <trkpt lat="42.37988" lon="0.15196">
        <ele>604.7</ele>
        <time>2017-07-02T10:30:55Z</time>
      </trkpt>
      <trkpt lat="42.37988" lon="0.15202">
        <ele>604.2</ele>
        <time>2017-07-02T10:30:57Z</time>
      </trkpt>
      <trkpt lat="42.37987" lon="0.15208">
        <ele>603.7</ele>
        <time>2017-07-02T10:30:59Z</time>
      </trkpt>
      <trkpt lat="42.37986" lon="0.15213">
        <ele>603.3</ele>
        <time>2017-07-02T10:31:01Z</time>
      </trkpt>
      <trkpt lat="42.37985" lon="0.15219">
        <ele>603</ele>
        <time>2017-07-02T10:31:03Z</time>
      </trkpt>
      <trkpt lat="42.37986" lon="0.15226">
        <ele>602.9</ele>
        <time>2017-07-02T10:31:05Z</time>
      </trkpt>
      <trkpt lat="42.37986" lon="0.15231">
        <ele>602.7</ele>
        <time>2017-07-02T10:31:06Z</time>
      </trkpt>
      <trkpt lat="42.37986" lon="0.15235">
        <ele>602.6</ele>
        <time>2017-07-02T10:31:07Z</time>
      </trkpt>
      <trkpt lat="42.37985" lon="0.15238">
        <ele>602.3</ele>
        <time>2017-07-02T10:31:08Z</time>
      </trkpt>
      <trkpt lat="42.37984" lon="0.15242">
        <ele>602.2</ele>
        <time>2017-07-02T10:31:09Z</time>
      </trkpt>
      <trkpt lat="42.37982" lon="0.15245">
        <ele>602</ele>
        <time>2017-07-02T10:31:10Z</time>
      </trkpt>
      <trkpt lat="42.37979" lon="0.15248">
        <ele>601.6</ele>
        <time>2017-07-02T10:31:12Z</time>
      </trkpt>
      <trkpt lat="42.37975" lon="0.15249">
        <ele>601.2</ele>
        <time>2017-07-02T10:31:14Z</time>
      </trkpt>
      <trkpt lat="42.37971" lon="0.1525">
        <ele>600.6</ele>
        <time>2017-07-02T10:31:16Z</time>
      </trkpt>
      <trkpt lat="42.37967" lon="0.15253">
        <ele>600.1</ele>
        <time>2017-07-02T10:31:18Z</time>
      </trkpt>
      <trkpt lat="42.37963" lon="0.15258">
        <ele>599.3</ele>
        <time>2017-07-02T10:31:20Z</time>
      </trkpt>
      <trkpt lat="42.37961" lon="0.1526">
        <ele>598.8</ele>
        <time>2017-07-02T10:31:21Z</time>
      </trkpt>
      <trkpt lat="42.37958" lon="0.15262">
        <ele>598.2</ele>
        <time>2017-07-02T10:31:22Z</time>
      </trkpt>
      <trkpt lat="42.37954" lon="0.15264">
        <ele>597.2</ele>
        <time>2017-07-02T10:31:23Z</time>
      </trkpt>
      <trkpt lat="42.3795" lon="0.15266">
        <ele>595.8</ele>
        <time>2017-07-02T10:31:24Z</time>
      </trkpt>
      <trkpt lat="42.37947" lon="0.15268">
        <ele>595.5</ele>
        <time>2017-07-02T10:31:25Z</time>
      </trkpt>
      <trkpt lat="42.37944" lon="0.1527">
        <ele>595.3</ele>
        <time>2017-07-02T10:31:26Z</time>
      </trkpt>
      <trkpt lat="42.37942" lon="0.15272">
        <ele>595.1</ele>
        <time>2017-07-02T10:31:27Z</time>
      </trkpt>
      <trkpt lat="42.37939" lon="0.15277">
        <ele>594.6</ele>
        <time>2017-07-02T10:31:29Z</time>
      </trkpt>
      <trkpt lat="42.37937" lon="0.15281">
        <ele>594.2</ele>
        <time>2017-07-02T10:31:30Z</time>
      </trkpt>
      <trkpt lat="42.37936" lon="0.15285">
        <ele>593.8</ele>
        <time>2017-07-02T10:31:31Z</time>
      </trkpt>
      <trkpt lat="42.37934" lon="0.15289">
        <ele>593.4</ele>
        <time>2017-07-02T10:31:32Z</time>
      </trkpt>
      <trkpt lat="42.37933" lon="0.15293">
        <ele>593</ele>
        <time>2017-07-02T10:31:33Z</time>
      </trkpt>
      <trkpt lat="42.37931" lon="0.15296">
        <ele>592.6</ele>
        <time>2017-07-02T10:31:34Z</time>
      </trkpt>
      <trkpt lat="42.37929" lon="0.15299">
        <ele>592.2</ele>
        <time>2017-07-02T10:31:35Z</time>
      </trkpt>
      <trkpt lat="42.37929" lon="0.15305">
        <ele>591.6</ele>
        <time>2017-07-02T10:31:37Z</time>
      </trkpt>
      <trkpt lat="42.37932" lon="0.1531">
        <ele>590.8</ele>
        <time>2017-07-02T10:31:39Z</time>
      </trkpt>
      <trkpt lat="42.37934" lon="0.15313">
        <ele>590.4</ele>
        <time>2017-07-02T10:31:40Z</time>
      </trkpt>
      <trkpt lat="42.37936" lon="0.15318">
        <ele>589.9</ele>
        <time>2017-07-02T10:31:41Z</time>
      </trkpt>
      <trkpt lat="42.37938" lon="0.15323">
        <ele>589.3</ele>
        <time>2017-07-02T10:31:42Z</time>
      </trkpt>
      <trkpt lat="42.3794" lon="0.15327">
        <ele>588.7</ele>
        <time>2017-07-02T10:31:43Z</time>
      </trkpt>
      <trkpt lat="42.3794" lon="0.15332">
        <ele>588.2</ele>
        <time>2017-07-02T10:31:44Z</time>
      </trkpt>
      <trkpt lat="42.3794" lon="0.15336">
        <ele>587.7</ele>
        <time>2017-07-02T10:31:45Z</time>
      </trkpt>
      <trkpt lat="42.37938" lon="0.15339">
        <ele>587.2</ele>
        <time>2017-07-02T10:31:46Z</time>
      </trkpt>
      <trkpt lat="42.37937" lon="0.15343">
        <ele>586.7</ele>
        <time>2017-07-02T10:31:47Z</time>
      </trkpt>
      <trkpt lat="42.37934" lon="0.15346">
        <ele>586.1</ele>
        <time>2017-07-02T10:31:48Z</time>
      </trkpt>
      <trkpt lat="42.37931" lon="0.15349">
        <ele>585.4</ele>
        <time>2017-07-02T10:31:49Z</time>
      </trkpt>
      <trkpt lat="42.37928" lon="0.15352">
        <ele>584.8</ele>
        <time>2017-07-02T10:31:50Z</time>
      </trkpt>
      <trkpt lat="42.37925" lon="0.15353">
        <ele>584.3</ele>
        <time>2017-07-02T10:31:51Z</time>
      </trkpt>
      <trkpt lat="42.37922" lon="0.15355">
        <ele>583.8</ele>
        <time>2017-07-02T10:31:52Z</time>
      </trkpt>
      <trkpt lat="42.37919" lon="0.15357">
        <ele>583.3</ele>
        <time>2017-07-02T10:31:53Z</time>
      </trkpt>
      <trkpt lat="42.37917" lon="0.15359">
        <ele>583</ele>
        <time>2017-07-02T10:31:54Z</time>
      </trkpt>
      <trkpt lat="42.37916" lon="0.15364">
        <ele>582.5</ele>
        <time>2017-07-02T10:31:55Z</time>
      </trkpt>
      <trkpt lat="42.37915" lon="0.1537">
        <ele>581.9</ele>
        <time>2017-07-02T10:31:56Z</time>
      </trkpt>
      <trkpt lat="42.37915" lon="0.15376">
        <ele>581.4</ele>
        <time>2017-07-02T10:31:57Z</time>
      </trkpt>
      <trkpt lat="42.37914" lon="0.15382">
        <ele>580.9</ele>
        <time>2017-07-02T10:31:58Z</time>
      </trkpt>
      <trkpt lat="42.37912" lon="0.15387">
        <ele>580.3</ele>
        <time>2017-07-02T10:31:59Z</time>
      </trkpt>
      <trkpt lat="42.37909" lon="0.15391">
        <ele>579.7</ele>
        <time>2017-07-02T10:32:00Z</time>
      </trkpt>
      <trkpt lat="42.37905" lon="0.15393">
        <ele>578.9</ele>
        <time>2017-07-02T10:32:01Z</time>
      </trkpt>
      <trkpt lat="42.37901" lon="0.15392">
        <ele>578.1</ele>
        <time>2017-07-02T10:32:02Z</time>
      </trkpt>
      <trkpt lat="42.37898" lon="0.1539">
        <ele>577.4</ele>
        <time>2017-07-02T10:32:03Z</time>
      </trkpt>
      <trkpt lat="42.37895" lon="0.15387">
        <ele>576.7</ele>
        <time>2017-07-02T10:32:04Z</time>
      </trkpt>
      <trkpt lat="42.37892" lon="0.15384">
        <ele>576.2</ele>
        <time>2017-07-02T10:32:06Z</time>
      </trkpt>
      <trkpt lat="42.37889" lon="0.15381">
        <ele>575.9</ele>
        <time>2017-07-02T10:32:08Z</time>
      </trkpt>
      <trkpt lat="42.37887" lon="0.15378">
        <ele>575.6</ele>
        <time>2017-07-02T10:32:10Z</time>
      </trkpt>
      <trkpt lat="42.37884" lon="0.15376">
        <ele>575</ele>
        <time>2017-07-02T10:32:12Z</time>
      </trkpt>
      <trkpt lat="42.37882" lon="0.15375">
        <ele>574.4</ele>
        <time>2017-07-02T10:32:14Z</time>
      </trkpt>
      <trkpt lat="42.37879" lon="0.15372">
        <ele>573.9</ele>
        <time>2017-07-02T10:32:16Z</time>
      </trkpt>
      <trkpt lat="42.37876" lon="0.1537">
        <ele>573.1</ele>
        <time>2017-07-02T10:32:18Z</time>
      </trkpt>
      <trkpt lat="42.37872" lon="0.15368">
        <ele>572.3</ele>
        <time>2017-07-02T10:32:20Z</time>
      </trkpt>
      <trkpt lat="42.37868" lon="0.15366">
        <ele>571.4</ele>
        <time>2017-07-02T10:32:22Z</time>
      </trkpt>
      <trkpt lat="42.37863" lon="0.15362">
        <ele>570.2</ele>
        <time>2017-07-02T10:32:24Z</time>
      </trkpt>
      <trkpt lat="42.37859" lon="0.15361">
        <ele>569.3</ele>
        <time>2017-07-02T10:32:25Z</time>
      </trkpt>
      <trkpt lat="42.37854" lon="0.1536">
        <ele>568.3</ele>
        <time>2017-07-02T10:32:26Z</time>
      </trkpt>
      <trkpt lat="42.3785" lon="0.1536">
        <ele>567.2</ele>
        <time>2017-07-02T10:32:27Z</time>
      </trkpt>
      <trkpt lat="42.37846" lon="0.15361">
        <ele>566.2</ele>
        <time>2017-07-02T10:32:28Z</time>
      </trkpt>
      <trkpt lat="42.37841" lon="0.15363">
        <ele>565</ele>
        <time>2017-07-02T10:32:30Z</time>
      </trkpt>
      <trkpt lat="42.37837" lon="0.15363">
        <ele>564.2</ele>
        <time>2017-07-02T10:32:32Z</time>
      </trkpt>
      <trkpt lat="42.37833" lon="0.15362">
        <ele>563.4</ele>
        <time>2017-07-02T10:32:34Z</time>
      </trkpt>
      <trkpt lat="42.37828" lon="0.15361">
        <ele>562.5</ele>
        <time>2017-07-02T10:32:36Z</time>
      </trkpt>
      <trkpt lat="42.37825" lon="0.1536">
        <ele>561.9</ele>
        <time>2017-07-02T10:32:37Z</time>
      </trkpt>
      <trkpt lat="42.37822" lon="0.15359">
        <ele>561.4</ele>
        <time>2017-07-02T10:32:38Z</time>
      </trkpt>
      <trkpt lat="42.37819" lon="0.15358">
        <ele>560.8</ele>
        <time>2017-07-02T10:32:39Z</time>
      </trkpt>
      <trkpt lat="42.37816" lon="0.15355">
        <ele>560.2</ele>
        <time>2017-07-02T10:32:40Z</time>
      </trkpt>
      <trkpt lat="42.37813" lon="0.15353">
        <ele>559.6</ele>
        <time>2017-07-02T10:32:41Z</time>
      </trkpt>
      <trkpt lat="42.37808" lon="0.1535">
        <ele>558.6</ele>
        <time>2017-07-02T10:32:43Z</time>
      </trkpt>
      <trkpt lat="42.37806" lon="0.15348">
        <ele>558.1</ele>
        <time>2017-07-02T10:32:44Z</time>
      </trkpt>
      <trkpt lat="42.37804" lon="0.15345">
        <ele>557.6</ele>
        <time>2017-07-02T10:32:45Z</time>
      </trkpt>
      <trkpt lat="42.37803" lon="0.1534">
        <ele>557</ele>
        <time>2017-07-02T10:32:46Z</time>
      </trkpt>
      <trkpt lat="42.37802" lon="0.15336">
        <ele>556.5</ele>
        <time>2017-07-02T10:32:47Z</time>
      </trkpt>
      <trkpt lat="42.378" lon="0.15333">
        <ele>555.9</ele>
        <time>2017-07-02T10:32:48Z</time>
      </trkpt>
      <trkpt lat="42.37799" lon="0.1533">
        <ele>555.4</ele>
        <time>2017-07-02T10:32:49Z</time>
      </trkpt>
      <trkpt lat="42.37797" lon="0.15326">
        <ele>554.8</ele>
        <time>2017-07-02T10:32:50Z</time>
      </trkpt>
      <trkpt lat="42.37795" lon="0.15323">
        <ele>554.1</ele>
        <time>2017-07-02T10:32:51Z</time>
      </trkpt>
      <trkpt lat="42.37793" lon="0.15319">
        <ele>553.1</ele>
        <time>2017-07-02T10:32:52Z</time>
      </trkpt>
      <trkpt lat="42.37791" lon="0.15316">
        <ele>550.4</ele>
        <time>2017-07-02T10:32:54Z</time>
      </trkpt>
      <trkpt lat="42.37789" lon="0.15314">
        <ele>550</ele>
        <time>2017-07-02T10:32:57Z</time>
      </trkpt>
      <trkpt lat="42.37786" lon="0.15311">
        <ele>549.8</ele>
        <time>2017-07-02T10:33:02Z</time>
      </trkpt>
      <trkpt lat="42.37779" lon="0.15308">
        <ele>549.4</ele>
        <time>2017-07-02T10:33:30Z</time>
      </trkpt>
      <trkpt lat="42.37775" lon="0.15311">
        <ele>549.1</ele>
        <time>2017-07-02T10:33:32Z</time>
      </trkpt>
      <trkpt lat="42.37772" lon="0.15316">
        <ele>548.7</ele>
        <time>2017-07-02T10:33:34Z</time>
      </trkpt>
      <trkpt lat="42.37768" lon="0.15321">
        <ele>548.2</ele>
        <time>2017-07-02T10:33:36Z</time>
      </trkpt>
      <trkpt lat="42.37766" lon="0.15324">
        <ele>548</ele>
        <time>2017-07-02T10:33:37Z</time>
      </trkpt>
      <trkpt lat="42.37764" lon="0.15327">
        <ele>547.8</ele>
        <time>2017-07-02T10:33:38Z</time>
      </trkpt>
      <trkpt lat="42.37762" lon="0.15329">
        <ele>547.7</ele>
        <time>2017-07-02T10:33:39Z</time>
      </trkpt>
      <trkpt lat="42.37759" lon="0.15331">
        <ele>547.6</ele>
        <time>2017-07-02T10:33:40Z</time>
      </trkpt>
      <trkpt lat="42.37756" lon="0.15334">
        <ele>547.4</ele>
        <time>2017-07-02T10:33:41Z</time>
      </trkpt>
      <trkpt lat="42.37753" lon="0.15337">
        <ele>547.3</ele>
        <time>2017-07-02T10:33:42Z</time>
      </trkpt>
      <trkpt lat="42.37749" lon="0.15339">
        <ele>547.1</ele>
        <time>2017-07-02T10:33:43Z</time>
      </trkpt>
      <trkpt lat="42.37746" lon="0.15342">
        <ele>547</ele>
        <time>2017-07-02T10:33:44Z</time>
      </trkpt>
      <trkpt lat="42.37742" lon="0.15345">
        <ele>546.9</ele>
        <time>2017-07-02T10:33:45Z</time>
      </trkpt>
      <trkpt lat="42.37736" lon="0.15349">
        <ele>546.7</ele>
        <time>2017-07-02T10:33:46Z</time>
      </trkpt>
      <trkpt lat="42.37731" lon="0.15352">
        <ele>546.5</ele>
        <time>2017-07-02T10:33:47Z</time>
      </trkpt>
      <trkpt lat="42.37728" lon="0.15354">
        <ele>546.2</ele>
        <time>2017-07-02T10:33:48Z</time>
      </trkpt>
      <trkpt lat="42.37722" lon="0.15358">
        <ele>545.7</ele>
        <time>2017-07-02T10:33:50Z</time>
      </trkpt>
      <trkpt lat="42.37717" lon="0.15361">
        <ele>545.4</ele>
        <time>2017-07-02T10:33:51Z</time>
      </trkpt>
      <trkpt lat="42.37713" lon="0.15364">
        <ele>545.2</ele>
        <time>2017-07-02T10:33:52Z</time>
      </trkpt>
      <trkpt lat="42.37709" lon="0.15366">
        <ele>544.9</ele>
        <time>2017-07-02T10:33:53Z</time>
      </trkpt>
      <trkpt lat="42.37705" lon="0.15368">
        <ele>544.8</ele>
        <time>2017-07-02T10:33:54Z</time>
      </trkpt>
      <trkpt lat="42.37699" lon="0.15371">
        <ele>544.5</ele>
        <time>2017-07-02T10:33:55Z</time>
      </trkpt>
      <trkpt lat="42.37694" lon="0.15372">
        <ele>544.3</ele>
        <time>2017-07-02T10:33:56Z</time>
      </trkpt>
      <trkpt lat="42.3769" lon="0.15374">
        <ele>544</ele>
        <time>2017-07-02T10:33:57Z</time>
      </trkpt>
      <trkpt lat="42.37687" lon="0.15376">
        <ele>543.7</ele>
        <time>2017-07-02T10:33:58Z</time>
      </trkpt>
      <trkpt lat="42.37684" lon="0.15378">
        <ele>543.4</ele>
        <time>2017-07-02T10:34:00Z</time>
      </trkpt>
      <trkpt lat="42.3768" lon="0.1538">
        <ele>543.1</ele>
        <time>2017-07-02T10:34:02Z</time>
      </trkpt>
      <trkpt lat="42.37677" lon="0.15381">
        <ele>543</ele>
        <time>2017-07-02T10:34:04Z</time>
      </trkpt>
      <trkpt lat="42.37673" lon="0.1538">
        <ele>542.7</ele>
        <time>2017-07-02T10:34:07Z</time>
      </trkpt>
      <trkpt lat="42.37669" lon="0.15376">
        <ele>542.6</ele>
        <time>2017-07-02T10:34:09Z</time>
      </trkpt>
      <trkpt lat="42.37666" lon="0.1537">
        <ele>542.4</ele>
        <time>2017-07-02T10:34:11Z</time>
      </trkpt>
      <trkpt lat="42.37664" lon="0.15367">
        <ele>542.3</ele>
        <time>2017-07-02T10:34:12Z</time>
      </trkpt>
      <trkpt lat="42.37662" lon="0.15364">
        <ele>542.1</ele>
        <time>2017-07-02T10:34:13Z</time>
      </trkpt>
      <trkpt lat="42.3766" lon="0.15361">
        <ele>542</ele>
        <time>2017-07-02T10:34:14Z</time>
      </trkpt>
      <trkpt lat="42.37657" lon="0.15355">
        <ele>541.6</ele>
        <time>2017-07-02T10:34:16Z</time>
      </trkpt>
      <trkpt lat="42.37654" lon="0.1535">
        <ele>541.3</ele>
        <time>2017-07-02T10:34:18Z</time>
      </trkpt>
      <trkpt lat="42.37653" lon="0.15347">
        <ele>541.1</ele>
        <time>2017-07-02T10:34:19Z</time>
      </trkpt>
      <trkpt lat="42.37652" lon="0.15343">
        <ele>540.9</ele>
        <time>2017-07-02T10:34:20Z</time>
      </trkpt>
      <trkpt lat="42.37651" lon="0.15339">
        <ele>540.8</ele>
        <time>2017-07-02T10:34:21Z</time>
      </trkpt>
      <trkpt lat="42.37651" lon="0.15335">
        <ele>540.7</ele>
        <time>2017-07-02T10:34:22Z</time>
      </trkpt>
      <trkpt lat="42.37654" lon="0.15331">
        <ele>540.6</ele>
        <time>2017-07-02T10:34:23Z</time>
      </trkpt>
      <trkpt lat="42.37656" lon="0.15326">
        <ele>540.5</ele>
        <time>2017-07-02T10:34:25Z</time>
      </trkpt>
      <trkpt lat="42.37661" lon="0.15322">
        <ele>540.4</ele>
        <time>2017-07-02T10:34:27Z</time>
      </trkpt>
      <trkpt lat="42.37664" lon="0.15317">
        <ele>540.3</ele>
        <time>2017-07-02T10:34:29Z</time>
      </trkpt>
      <trkpt lat="42.37666" lon="0.15311">
        <ele>540.3</ele>
        <time>2017-07-02T10:34:31Z</time>
      </trkpt>
      <trkpt lat="42.37667" lon="0.15305">
        <ele>540.2</ele>
        <time>2017-07-02T10:34:33Z</time>
      </trkpt>
      <trkpt lat="42.37665" lon="0.15299">
        <ele>540.2</ele>
        <time>2017-07-02T10:34:35Z</time>
      </trkpt>
      <trkpt lat="42.37661" lon="0.15295">
        <ele>540.2</ele>
        <time>2017-07-02T10:34:37Z</time>
      </trkpt>
      <trkpt lat="42.37658" lon="0.15293">
        <ele>540.2</ele>
        <time>2017-07-02T10:34:39Z</time>
      </trkpt>
      <trkpt lat="42.37654" lon="0.15292">
        <ele>540.1</ele>
        <time>2017-07-02T10:34:41Z</time>
      </trkpt>
      <trkpt lat="42.37651" lon="0.15291">
        <ele>540.1</ele>
        <time>2017-07-02T10:34:43Z</time>
      </trkpt>
      <trkpt lat="42.37648" lon="0.1529">
        <ele>540.1</ele>
        <time>2017-07-02T10:34:45Z</time>
      </trkpt>
      <trkpt lat="42.37644" lon="0.15288">
        <ele>540.1</ele>
        <time>2017-07-02T10:34:47Z</time>
      </trkpt>
      <trkpt lat="42.37639" lon="0.15286">
        <ele>540.1</ele>
        <time>2017-07-02T10:34:49Z</time>
      </trkpt>
      <trkpt lat="42.37633" lon="0.15284">
        <ele>540</ele>
        <time>2017-07-02T10:34:51Z</time>
      </trkpt>
      <trkpt lat="42.37631" lon="0.15283">
        <ele>540</ele>
        <time>2017-07-02T10:34:52Z</time>
      </trkpt>
      <trkpt lat="42.37628" lon="0.15282">
        <ele>540</ele>
        <time>2017-07-02T10:34:53Z</time>
      </trkpt>
      <trkpt lat="42.37625" lon="0.15281">
        <ele>540</ele>
        <time>2017-07-02T10:34:54Z</time>
      </trkpt>
      <trkpt lat="42.3762" lon="0.1528">
        <ele>540</ele>
        <time>2017-07-02T10:34:56Z</time>
      </trkpt>
      <trkpt lat="42.37615" lon="0.15279">
        <ele>540</ele>
        <time>2017-07-02T10:34:58Z</time>
      </trkpt>
      <trkpt lat="42.37612" lon="0.15278">
        <ele>540</ele>
        <time>2017-07-02T10:34:59Z</time>
      </trkpt>
      <trkpt lat="42.37609" lon="0.15278">
        <ele>539.9</ele>
        <time>2017-07-02T10:35:00Z</time>
      </trkpt>
      <trkpt lat="42.37604" lon="0.15275">
        <ele>539.9</ele>
        <time>2017-07-02T10:35:02Z</time>
      </trkpt>
      <trkpt lat="42.37602" lon="0.15274">
        <ele>539.9</ele>
        <time>2017-07-02T10:35:03Z</time>
      </trkpt>
      <trkpt lat="42.37597" lon="0.15271">
        <ele>539.9</ele>
        <time>2017-07-02T10:35:05Z</time>
      </trkpt>
      <trkpt lat="42.37593" lon="0.15269">
        <ele>539.8</ele>
        <time>2017-07-02T10:35:07Z</time>
      </trkpt>
      <trkpt lat="42.37588" lon="0.15267">
        <ele>539.8</ele>
        <time>2017-07-02T10:35:09Z</time>
      </trkpt>
      <trkpt lat="42.37584" lon="0.15266">
        <ele>539.8</ele>
        <time>2017-07-02T10:35:11Z</time>
      </trkpt>
      <trkpt lat="42.3758" lon="0.15265">
        <ele>539.8</ele>
        <time>2017-07-02T10:35:12Z</time>
      </trkpt>
      <trkpt lat="42.37577" lon="0.15264">
        <ele>539.8</ele>
        <time>2017-07-02T10:35:13Z</time>
      </trkpt>
      <trkpt lat="42.37575" lon="0.15263">
        <ele>539.7</ele>
        <time>2017-07-02T10:35:14Z</time>
      </trkpt>
      <trkpt lat="42.37572" lon="0.15262">
        <ele>539.7</ele>
        <time>2017-07-02T10:35:15Z</time>
      </trkpt>
      <trkpt lat="42.37569" lon="0.1526">
        <ele>539.6</ele>
        <time>2017-07-02T10:35:16Z</time>
      </trkpt>
      <trkpt lat="42.37566" lon="0.15259">
        <ele>539.5</ele>
        <time>2017-07-02T10:35:17Z</time>
      </trkpt>
      <trkpt lat="42.37563" lon="0.15259">
        <ele>539.4</ele>
        <time>2017-07-02T10:35:18Z</time>
      </trkpt>
      <trkpt lat="42.3756" lon="0.15256">
        <ele>539.3</ele>
        <time>2017-07-02T10:35:21Z</time>
      </trkpt>
      <trkpt lat="42.37557" lon="0.15258">
        <ele>539.2</ele>
        <time>2017-07-02T10:35:25Z</time>
      </trkpt>
      <trkpt lat="42.37557" lon="0.15263">
        <ele>539</ele>
        <time>2017-07-02T10:35:26Z</time>
      </trkpt>
      <trkpt lat="42.37557" lon="0.15268">
        <ele>538.8</ele>
        <time>2017-07-02T10:35:27Z</time>
      </trkpt>
      <trkpt lat="42.37557" lon="0.15272">
        <ele>538.5</ele>
        <time>2017-07-02T10:35:28Z</time>
      </trkpt>
      <trkpt lat="42.37557" lon="0.15276">
        <ele>538.3</ele>
        <time>2017-07-02T10:35:29Z</time>
      </trkpt>
      <trkpt lat="42.37557" lon="0.1528">
        <ele>538</ele>
        <time>2017-07-02T10:35:30Z</time>
      </trkpt>
      <trkpt lat="42.37555" lon="0.15283">
        <ele>537.7</ele>
        <time>2017-07-02T10:35:31Z</time>
      </trkpt>
      <trkpt lat="42.37553" lon="0.15286">
        <ele>537.4</ele>
        <time>2017-07-02T10:35:32Z</time>
      </trkpt>
      <trkpt lat="42.3755" lon="0.15288">
        <ele>537</ele>
        <time>2017-07-02T10:35:33Z</time>
      </trkpt>
      <trkpt lat="42.37547" lon="0.1529">
        <ele>536.6</ele>
        <time>2017-07-02T10:35:34Z</time>
      </trkpt>
      <trkpt lat="42.37544" lon="0.1529">
        <ele>536</ele>
        <time>2017-07-02T10:35:35Z</time>
      </trkpt>
      <trkpt lat="42.37541" lon="0.1529">
        <ele>536</ele>
        <time>2017-07-02T10:35:36Z</time>
      </trkpt>
      <trkpt lat="42.37536" lon="0.15291">
        <ele>536</ele>
        <time>2017-07-02T10:35:37Z</time>
      </trkpt>
      <trkpt lat="42.37532" lon="0.15292">
        <ele>536</ele>
        <time>2017-07-02T10:35:38Z</time>
      </trkpt>
      <trkpt lat="42.37526" lon="0.15293">
        <ele>536</ele>
        <time>2017-07-02T10:35:39Z</time>
      </trkpt>
      <trkpt lat="42.37521" lon="0.15294">
        <ele>535.8</ele>
        <time>2017-07-02T10:35:40Z</time>
      </trkpt>
      <trkpt lat="42.37516" lon="0.15294">
        <ele>534.8</ele>
        <time>2017-07-02T10:35:41Z</time>
      </trkpt>
      <trkpt lat="42.37511" lon="0.15295">
        <ele>533.8</ele>
        <time>2017-07-02T10:35:42Z</time>
      </trkpt>
      <trkpt lat="42.37508" lon="0.15294">
        <ele>533</ele>
        <time>2017-07-02T10:35:43Z</time>
      </trkpt>
      <trkpt lat="42.37504" lon="0.15293">
        <ele>532.3</ele>
        <time>2017-07-02T10:35:45Z</time>
      </trkpt>
      <trkpt lat="42.37501" lon="0.15291">
        <ele>531.7</ele>
        <time>2017-07-02T10:35:46Z</time>
      </trkpt>
      <trkpt lat="42.37499" lon="0.15289">
        <ele>531</ele>
        <time>2017-07-02T10:35:47Z</time>
      </trkpt>
      <trkpt lat="42.37497" lon="0.15284">
        <ele>530.6</ele>
        <time>2017-07-02T10:35:48Z</time>
      </trkpt>
      <trkpt lat="42.37496" lon="0.15279">
        <ele>530.9</ele>
        <time>2017-07-02T10:35:49Z</time>
      </trkpt>
      <trkpt lat="42.37493" lon="0.15275">
        <ele>531.2</ele>
        <time>2017-07-02T10:35:50Z</time>
      </trkpt>
      <trkpt lat="42.37489" lon="0.1527">
        <ele>531.6</ele>
        <time>2017-07-02T10:35:51Z</time>
      </trkpt>
      <trkpt lat="42.37488" lon="0.15265">
        <ele>531.9</ele>
        <time>2017-07-02T10:35:52Z</time>
      </trkpt>
      <trkpt lat="42.37486" lon="0.15259">
        <ele>532.2</ele>
        <time>2017-07-02T10:35:53Z</time>
      </trkpt>
      <trkpt lat="42.37484" lon="0.15254">
        <ele>532.5</ele>
        <time>2017-07-02T10:35:54Z</time>
      </trkpt>
      <trkpt lat="42.37482" lon="0.15249">
        <ele>532.8</ele>
        <time>2017-07-02T10:35:55Z</time>
      </trkpt>
      <trkpt lat="42.3748" lon="0.15244">
        <ele>533.1</ele>
        <time>2017-07-02T10:35:56Z</time>
      </trkpt>
      <trkpt lat="42.37478" lon="0.15239">
        <ele>533.3</ele>
        <time>2017-07-02T10:35:57Z</time>
      </trkpt>
      <trkpt lat="42.37474" lon="0.15234">
        <ele>533.5</ele>
        <time>2017-07-02T10:35:58Z</time>
      </trkpt>
      <trkpt lat="42.37471" lon="0.15229">
        <ele>533.8</ele>
        <time>2017-07-02T10:35:59Z</time>
      </trkpt>
      <trkpt lat="42.37469" lon="0.15223">
        <ele>534</ele>
        <time>2017-07-02T10:36:00Z</time>
      </trkpt>
      <trkpt lat="42.37468" lon="0.15218">
        <ele>534.2</ele>
        <time>2017-07-02T10:36:01Z</time>
      </trkpt>
      <trkpt lat="42.37467" lon="0.15212">
        <ele>534.4</ele>
        <time>2017-07-02T10:36:02Z</time>
      </trkpt>
      <trkpt lat="42.37465" lon="0.15207">
        <ele>534.5</ele>
        <time>2017-07-02T10:36:03Z</time>
      </trkpt>
      <trkpt lat="42.37465" lon="0.15202">
        <ele>534.7</ele>
        <time>2017-07-02T10:36:04Z</time>
      </trkpt>
      <trkpt lat="42.37463" lon="0.15197">
        <ele>534.8</ele>
        <time>2017-07-02T10:36:05Z</time>
      </trkpt>
      <trkpt lat="42.37462" lon="0.15192">
        <ele>535</ele>
        <time>2017-07-02T10:36:06Z</time>
      </trkpt>
      <trkpt lat="42.37459" lon="0.15187">
        <ele>535.1</ele>
        <time>2017-07-02T10:36:07Z</time>
      </trkpt>
      <trkpt lat="42.37457" lon="0.1518">
        <ele>535.2</ele>
        <time>2017-07-02T10:36:08Z</time>
      </trkpt>
      <trkpt lat="42.37456" lon="0.15175">
        <ele>535.3</ele>
        <time>2017-07-02T10:36:09Z</time>
      </trkpt>
      <trkpt lat="42.37452" lon="0.15169">
        <ele>535.4</ele>
        <time>2017-07-02T10:36:10Z</time>
      </trkpt>
      <trkpt lat="42.37451" lon="0.15163">
        <ele>535.5</ele>
        <time>2017-07-02T10:36:11Z</time>
      </trkpt>
      <trkpt lat="42.37449" lon="0.15158">
        <ele>535.7</ele>
        <time>2017-07-02T10:36:12Z</time>
      </trkpt>
      <trkpt lat="42.37445" lon="0.15152">
        <ele>535.8</ele>
        <time>2017-07-02T10:36:13Z</time>
      </trkpt>
      <trkpt lat="42.37443" lon="0.15147">
        <ele>535.9</ele>
        <time>2017-07-02T10:36:14Z</time>
      </trkpt>
      <trkpt lat="42.37441" lon="0.15142">
        <ele>536</ele>
        <time>2017-07-02T10:36:15Z</time>
      </trkpt>
      <trkpt lat="42.37439" lon="0.15137">
        <ele>536</ele>
        <time>2017-07-02T10:36:16Z</time>
      </trkpt>
      <trkpt lat="42.37439" lon="0.15131">
        <ele>536</ele>
        <time>2017-07-02T10:36:17Z</time>
      </trkpt>
      <trkpt lat="42.37437" lon="0.15125">
        <ele>535.9</ele>
        <time>2017-07-02T10:36:18Z</time>
      </trkpt>
      <trkpt lat="42.37436" lon="0.15119">
        <ele>535.9</ele>
        <time>2017-07-02T10:36:19Z</time>
      </trkpt>
      <trkpt lat="42.37434" lon="0.15114">
        <ele>535.9</ele>
        <time>2017-07-02T10:36:20Z</time>
      </trkpt>
      <trkpt lat="42.37432" lon="0.15109">
        <ele>535.9</ele>
        <time>2017-07-02T10:36:21Z</time>
      </trkpt>
      <trkpt lat="42.3743" lon="0.15103">
        <ele>535.9</ele>
        <time>2017-07-02T10:36:22Z</time>
      </trkpt>
      <trkpt lat="42.37429" lon="0.15098">
        <ele>535.8</ele>
        <time>2017-07-02T10:36:23Z</time>
      </trkpt>
      <trkpt lat="42.37428" lon="0.15092">
        <ele>535.8</ele>
        <time>2017-07-02T10:36:24Z</time>
      </trkpt>
      <trkpt lat="42.37427" lon="0.15086">
        <ele>535.8</ele>
        <time>2017-07-02T10:36:25Z</time>
      </trkpt>
      <trkpt lat="42.37426" lon="0.15079">
        <ele>535.8</ele>
        <time>2017-07-02T10:36:26Z</time>
      </trkpt>
      <trkpt lat="42.37426" lon="0.15073">
        <ele>535.7</ele>
        <time>2017-07-02T10:36:27Z</time>
      </trkpt>
      <trkpt lat="42.37426" lon="0.15068">
        <ele>535.7</ele>
        <time>2017-07-02T10:36:28Z</time>
      </trkpt>
      <trkpt lat="42.37424" lon="0.15062">
        <ele>535.7</ele>
        <time>2017-07-02T10:36:29Z</time>
      </trkpt>
      <trkpt lat="42.37424" lon="0.15055">
        <ele>535.7</ele>
        <time>2017-07-02T10:36:30Z</time>
      </trkpt>
      <trkpt lat="42.37424" lon="0.15049">
        <ele>535.7</ele>
        <time>2017-07-02T10:36:31Z</time>
      </trkpt>
      <trkpt lat="42.37424" lon="0.15044">
        <ele>535.6</ele>
        <time>2017-07-02T10:36:32Z</time>
      </trkpt>
      <trkpt lat="42.37427" lon="0.15036">
        <ele>535.6</ele>
        <time>2017-07-02T10:36:33Z</time>
      </trkpt>
      <trkpt lat="42.37427" lon="0.15031">
        <ele>535.6</ele>
        <time>2017-07-02T10:36:34Z</time>
      </trkpt>
      <trkpt lat="42.37425" lon="0.15025">
        <ele>535.6</ele>
        <time>2017-07-02T10:36:35Z</time>
      </trkpt>
      <trkpt lat="42.37426" lon="0.15019">
        <ele>535.6</ele>
        <time>2017-07-02T10:36:36Z</time>
      </trkpt>
      <trkpt lat="42.37425" lon="0.15012">
        <ele>535.5</ele>
        <time>2017-07-02T10:36:37Z</time>
      </trkpt>
      <trkpt lat="42.37424" lon="0.15006">
        <ele>535.5</ele>
        <time>2017-07-02T10:36:38Z</time>
      </trkpt>
      <trkpt lat="42.37425" lon="0.15">
        <ele>535.5</ele>
        <time>2017-07-02T10:36:39Z</time>
      </trkpt>
      <trkpt lat="42.37426" lon="0.14994">
        <ele>535.5</ele>
        <time>2017-07-02T10:36:40Z</time>
      </trkpt>
      <trkpt lat="42.37426" lon="0.14987">
        <ele>535.5</ele>
        <time>2017-07-02T10:36:41Z</time>
      </trkpt>
      <trkpt lat="42.37427" lon="0.14979">
        <ele>535.4</ele>
        <time>2017-07-02T10:36:42Z</time>
      </trkpt>
      <trkpt lat="42.37428" lon="0.14972">
        <ele>535.4</ele>
        <time>2017-07-02T10:36:43Z</time>
      </trkpt>
      <trkpt lat="42.37431" lon="0.14966">
        <ele>535.4</ele>
        <time>2017-07-02T10:36:44Z</time>
      </trkpt>
      <trkpt lat="42.37432" lon="0.1496">
        <ele>535.4</ele>
        <time>2017-07-02T10:36:45Z</time>
      </trkpt>
      <trkpt lat="42.37433" lon="0.14954">
        <ele>535.4</ele>
        <time>2017-07-02T10:36:46Z</time>
      </trkpt>
      <trkpt lat="42.37434" lon="0.14948">
        <ele>535.4</ele>
        <time>2017-07-02T10:36:47Z</time>
      </trkpt>
      <trkpt lat="42.37436" lon="0.14942">
        <ele>535.4</ele>
        <time>2017-07-02T10:36:48Z</time>
      </trkpt>
      <trkpt lat="42.37439" lon="0.14937">
        <ele>535.4</ele>
        <time>2017-07-02T10:36:49Z</time>
      </trkpt>
      <trkpt lat="42.37441" lon="0.14931">
        <ele>535.4</ele>
        <time>2017-07-02T10:36:50Z</time>
      </trkpt>
      <trkpt lat="42.37442" lon="0.14925">
        <ele>535.4</ele>
        <time>2017-07-02T10:36:51Z</time>
      </trkpt>
      <trkpt lat="42.37444" lon="0.14919">
        <ele>535.4</ele>
        <time>2017-07-02T10:36:52Z</time>
      </trkpt>
      <trkpt lat="42.37446" lon="0.14914">
        <ele>535.4</ele>
        <time>2017-07-02T10:36:53Z</time>
      </trkpt>
      <trkpt lat="42.37448" lon="0.14908">
        <ele>535.5</ele>
        <time>2017-07-02T10:36:54Z</time>
      </trkpt>
      <trkpt lat="42.3745" lon="0.14902">
        <ele>535.5</ele>
        <time>2017-07-02T10:36:55Z</time>
      </trkpt>
      <trkpt lat="42.37452" lon="0.14897">
        <ele>535.7</ele>
        <time>2017-07-02T10:36:56Z</time>
      </trkpt>
      <trkpt lat="42.37455" lon="0.14892">
        <ele>535.9</ele>
        <time>2017-07-02T10:36:57Z</time>
      </trkpt>
      <trkpt lat="42.37456" lon="0.14886">
        <ele>536</ele>
        <time>2017-07-02T10:36:58Z</time>
      </trkpt>
      <trkpt lat="42.37459" lon="0.1488">
        <ele>536.2</ele>
        <time>2017-07-02T10:36:59Z</time>
      </trkpt>
      <trkpt lat="42.37461" lon="0.14875">
        <ele>536.2</ele>
        <time>2017-07-02T10:37:00Z</time>
      </trkpt>
      <trkpt lat="42.37463" lon="0.1487">
        <ele>536.2</ele>
        <time>2017-07-02T10:37:01Z</time>
      </trkpt>
      <trkpt lat="42.37466" lon="0.14864">
        <ele>536.2</ele>
        <time>2017-07-02T10:37:02Z</time>
      </trkpt>
      <trkpt lat="42.37468" lon="0.14858">
        <ele>536.2</ele>
        <time>2017-07-02T10:37:03Z</time>
      </trkpt>
      <trkpt lat="42.37471" lon="0.14853">
        <ele>536.3</ele>
        <time>2017-07-02T10:37:04Z</time>
      </trkpt>
      <trkpt lat="42.37472" lon="0.14847">
        <ele>536.3</ele>
        <time>2017-07-02T10:37:05Z</time>
      </trkpt>
      <trkpt lat="42.37474" lon="0.14842">
        <ele>536.3</ele>
        <time>2017-07-02T10:37:06Z</time>
      </trkpt>
      <trkpt lat="42.37475" lon="0.14838">
        <ele>536.3</ele>
        <time>2017-07-02T10:37:07Z</time>
      </trkpt>
      <trkpt lat="42.37478" lon="0.14829">
        <ele>536.2</ele>
        <time>2017-07-02T10:37:09Z</time>
      </trkpt>
      <trkpt lat="42.3748" lon="0.14824">
        <ele>536.2</ele>
        <time>2017-07-02T10:37:10Z</time>
      </trkpt>
      <trkpt lat="42.37482" lon="0.14819">
        <ele>536.2</ele>
        <time>2017-07-02T10:37:11Z</time>
      </trkpt>
      <trkpt lat="42.37484" lon="0.14814">
        <ele>536.2</ele>
        <time>2017-07-02T10:37:12Z</time>
      </trkpt>
      <trkpt lat="42.37486" lon="0.1481">
        <ele>536.2</ele>
        <time>2017-07-02T10:37:13Z</time>
      </trkpt>
      <trkpt lat="42.37487" lon="0.14805">
        <ele>536.4</ele>
        <time>2017-07-02T10:37:14Z</time>
      </trkpt>
      <trkpt lat="42.37489" lon="0.148">
        <ele>536.6</ele>
        <time>2017-07-02T10:37:15Z</time>
      </trkpt>
      <trkpt lat="42.3749" lon="0.14796">
        <ele>537</ele>
        <time>2017-07-02T10:37:16Z</time>
      </trkpt>
      <trkpt lat="42.37492" lon="0.14793">
        <ele>537.4</ele>
        <time>2017-07-02T10:37:17Z</time>
      </trkpt>
      <trkpt lat="42.37495" lon="0.1479">
        <ele>537.9</ele>
        <time>2017-07-02T10:37:18Z</time>
      </trkpt>
      <trkpt lat="42.37498" lon="0.14789">
        <ele>538.3</ele>
        <time>2017-07-02T10:37:19Z</time>
      </trkpt>
      <trkpt lat="42.37501" lon="0.1479">
        <ele>538.6</ele>
        <time>2017-07-02T10:37:20Z</time>
      </trkpt>
      <trkpt lat="42.37505" lon="0.14792">
        <ele>539</ele>
        <time>2017-07-02T10:37:21Z</time>
      </trkpt>
      <trkpt lat="42.37507" lon="0.14795">
        <ele>539.5</ele>
        <time>2017-07-02T10:37:22Z</time>
      </trkpt>
      <trkpt lat="42.3751" lon="0.14798">
        <ele>539.9</ele>
        <time>2017-07-02T10:37:23Z</time>
      </trkpt>
      <trkpt lat="42.37512" lon="0.14803">
        <ele>540.4</ele>
        <time>2017-07-02T10:37:25Z</time>
      </trkpt>
      <trkpt lat="42.37514" lon="0.14808">
        <ele>540.6</ele>
        <time>2017-07-02T10:37:27Z</time>
      </trkpt>
      <trkpt lat="42.37518" lon="0.14813">
        <ele>540.9</ele>
        <time>2017-07-02T10:37:29Z</time>
      </trkpt>
      <trkpt lat="42.37522" lon="0.14816">
        <ele>541.1</ele>
        <time>2017-07-02T10:37:31Z</time>
      </trkpt>
      <trkpt lat="42.37526" lon="0.1482">
        <ele>541.6</ele>
        <time>2017-07-02T10:37:33Z</time>
      </trkpt>
      <trkpt lat="42.37527" lon="0.14827">
        <ele>542.1</ele>
        <time>2017-07-02T10:37:35Z</time>
      </trkpt>
      <trkpt lat="42.37525" lon="0.14835">
        <ele>542.4</ele>
        <time>2017-07-02T10:37:37Z</time>
      </trkpt>
      <trkpt lat="42.37523" lon="0.14839">
        <ele>542.5</ele>
        <time>2017-07-02T10:37:38Z</time>
      </trkpt>
      <trkpt lat="42.37521" lon="0.14843">
        <ele>542.7</ele>
        <time>2017-07-02T10:37:39Z</time>
      </trkpt>
      <trkpt lat="42.3752" lon="0.14846">
        <ele>542.9</ele>
        <time>2017-07-02T10:37:40Z</time>
      </trkpt>
      <trkpt lat="42.37519" lon="0.14849">
        <ele>543</ele>
        <time>2017-07-02T10:37:41Z</time>
      </trkpt>
      <trkpt lat="42.37516" lon="0.14854">
        <ele>543.2</ele>
        <time>2017-07-02T10:37:43Z</time>
      </trkpt>
      <trkpt lat="42.37513" lon="0.1486">
        <ele>543.3</ele>
        <time>2017-07-02T10:37:45Z</time>
      </trkpt>
      <trkpt lat="42.37511" lon="0.14863">
        <ele>543.4</ele>
        <time>2017-07-02T10:37:46Z</time>
      </trkpt>
      <trkpt lat="42.37509" lon="0.14868">
        <ele>543.7</ele>
        <time>2017-07-02T10:37:48Z</time>
      </trkpt>
      <trkpt lat="42.37506" lon="0.14871">
        <ele>544</ele>
        <time>2017-07-02T10:37:50Z</time>
      </trkpt>
      <trkpt lat="42.37503" lon="0.14875">
        <ele>544.5</ele>
        <time>2017-07-02T10:37:52Z</time>
      </trkpt>
      <trkpt lat="42.375" lon="0.14877">
        <ele>544.9</ele>
        <time>2017-07-02T10:37:55Z</time>
      </trkpt>
      <trkpt lat="42.37497" lon="0.14879">
        <ele>545</ele>
        <time>2017-07-02T10:37:58Z</time>
      </trkpt>
      <trkpt lat="42.37496" lon="0.14885">
        <ele>545.2</ele>
        <time>2017-07-02T10:38:01Z</time>
      </trkpt>
      <trkpt lat="42.37495" lon="0.1489">
        <ele>545.4</ele>
        <time>2017-07-02T10:38:03Z</time>
      </trkpt>
      <trkpt lat="42.37494" lon="0.14894">
        <ele>545.6</ele>
        <time>2017-07-02T10:38:05Z</time>
      </trkpt>
      <trkpt lat="42.37491" lon="0.14899">
        <ele>545.8</ele>
        <time>2017-07-02T10:38:07Z</time>
      </trkpt>
      <trkpt lat="42.37488" lon="0.14903">
        <ele>546.2</ele>
        <time>2017-07-02T10:38:09Z</time>
      </trkpt>
      <trkpt lat="42.37485" lon="0.14907">
        <ele>546.7</ele>
        <time>2017-07-02T10:38:11Z</time>
      </trkpt>
      <trkpt lat="42.37483" lon="0.14912">
        <ele>547.1</ele>
        <time>2017-07-02T10:38:13Z</time>
      </trkpt>
      <trkpt lat="42.37481" lon="0.14917">
        <ele>547.4</ele>
        <time>2017-07-02T10:38:15Z</time>
      </trkpt>
      <trkpt lat="42.37478" lon="0.14922">
        <ele>547.6</ele>
        <time>2017-07-02T10:38:17Z</time>
      </trkpt>
      <trkpt lat="42.37476" lon="0.14927">
        <ele>548</ele>
        <time>2017-07-02T10:38:19Z</time>
      </trkpt>
      <trkpt lat="42.37473" lon="0.14932">
        <ele>548.8</ele>
        <time>2017-07-02T10:38:21Z</time>
      </trkpt>
      <trkpt lat="42.37471" lon="0.14937">
        <ele>549.3</ele>
        <time>2017-07-02T10:38:23Z</time>
      </trkpt>
      <trkpt lat="42.37468" lon="0.14942">
        <ele>549.7</ele>
        <time>2017-07-02T10:38:25Z</time>
      </trkpt>
      <trkpt lat="42.37465" lon="0.14947">
        <ele>550</ele>
        <time>2017-07-02T10:38:27Z</time>
      </trkpt>
      <trkpt lat="42.37463" lon="0.14952">
        <ele>550.3</ele>
        <time>2017-07-02T10:38:29Z</time>
      </trkpt>
      <trkpt lat="42.3746" lon="0.14957">
        <ele>550.9</ele>
        <time>2017-07-02T10:38:31Z</time>
      </trkpt>
      <trkpt lat="42.37459" lon="0.14963">
        <ele>551.4</ele>
        <time>2017-07-02T10:38:33Z</time>
      </trkpt>
      <trkpt lat="42.37458" lon="0.14968">
        <ele>551.7</ele>
        <time>2017-07-02T10:38:35Z</time>
      </trkpt>
      <trkpt lat="42.37457" lon="0.14974">
        <ele>551.9</ele>
        <time>2017-07-02T10:38:37Z</time>
      </trkpt>
      <trkpt lat="42.37456" lon="0.14979">
        <ele>552.3</ele>
        <time>2017-07-02T10:38:39Z</time>
      </trkpt>
      <trkpt lat="42.37455" lon="0.14984">
        <ele>552.8</ele>
        <time>2017-07-02T10:38:41Z</time>
      </trkpt>
      <trkpt lat="42.37455" lon="0.14989">
        <ele>553.4</ele>
        <time>2017-07-02T10:38:43Z</time>
      </trkpt>
      <trkpt lat="42.37455" lon="0.14994">
        <ele>553.8</ele>
        <time>2017-07-02T10:38:45Z</time>
      </trkpt>
      <trkpt lat="42.37456" lon="0.14999">
        <ele>554</ele>
        <time>2017-07-02T10:38:47Z</time>
      </trkpt>
      <trkpt lat="42.37456" lon="0.15003">
        <ele>554.3</ele>
        <time>2017-07-02T10:38:49Z</time>
      </trkpt>
      <trkpt lat="42.37458" lon="0.15008">
        <ele>554.9</ele>
        <time>2017-07-02T10:38:51Z</time>
      </trkpt>
      <trkpt lat="42.37459" lon="0.15013">
        <ele>555.5</ele>
        <time>2017-07-02T10:38:53Z</time>
      </trkpt>
      <trkpt lat="42.37461" lon="0.15017">
        <ele>555.8</ele>
        <time>2017-07-02T10:38:55Z</time>
      </trkpt>
      <trkpt lat="42.37463" lon="0.15021">
        <ele>556.2</ele>
        <time>2017-07-02T10:38:57Z</time>
      </trkpt>
      <trkpt lat="42.37465" lon="0.15026">
        <ele>556.4</ele>
        <time>2017-07-02T10:38:59Z</time>
      </trkpt>
      <trkpt lat="42.37467" lon="0.15029">
        <ele>556.6</ele>
        <time>2017-07-02T10:39:01Z</time>
      </trkpt>
      <trkpt lat="42.37468" lon="0.15033">
        <ele>556.7</ele>
        <time>2017-07-02T10:39:03Z</time>
      </trkpt>
      <trkpt lat="42.3747" lon="0.15036">
        <ele>556.9</ele>
        <time>2017-07-02T10:39:05Z</time>
      </trkpt>
      <trkpt lat="42.37473" lon="0.15039">
        <ele>557.4</ele>
        <time>2017-07-02T10:39:07Z</time>
      </trkpt>
      <trkpt lat="42.37475" lon="0.15042">
        <ele>557.8</ele>
        <time>2017-07-02T10:39:09Z</time>
      </trkpt>
      <trkpt lat="42.37478" lon="0.15044">
        <ele>558</ele>
        <time>2017-07-02T10:39:11Z</time>
      </trkpt>
      <trkpt lat="42.37481" lon="0.15045">
        <ele>558.3</ele>
        <time>2017-07-02T10:39:13Z</time>
      </trkpt>
      <trkpt lat="42.37484" lon="0.15046">
        <ele>558.5</ele>
        <time>2017-07-02T10:39:15Z</time>
      </trkpt>
      <trkpt lat="42.37487" lon="0.15047">
        <ele>558.8</ele>
        <time>2017-07-02T10:39:17Z</time>
      </trkpt>
      <trkpt lat="42.3749" lon="0.15048">
        <ele>559.2</ele>
        <time>2017-07-02T10:39:19Z</time>
      </trkpt>
      <trkpt lat="42.37494" lon="0.15049">
        <ele>559.8</ele>
        <time>2017-07-02T10:39:21Z</time>
      </trkpt>
      <trkpt lat="42.37498" lon="0.15049">
        <ele>560.3</ele>
        <time>2017-07-02T10:39:23Z</time>
      </trkpt>
      <trkpt lat="42.37501" lon="0.15048">
        <ele>560.5</ele>
        <time>2017-07-02T10:39:25Z</time>
      </trkpt>
      <trkpt lat="42.37505" lon="0.15047">
        <ele>560.8</ele>
        <time>2017-07-02T10:39:27Z</time>
      </trkpt>
      <trkpt lat="42.37509" lon="0.15047">
        <ele>561.4</ele>
        <time>2017-07-02T10:39:29Z</time>
      </trkpt>
      <trkpt lat="42.37513" lon="0.15048">
        <ele>562.1</ele>
        <time>2017-07-02T10:39:31Z</time>
      </trkpt>
      <trkpt lat="42.37516" lon="0.15048">
        <ele>562.6</ele>
        <time>2017-07-02T10:39:33Z</time>
      </trkpt>
      <trkpt lat="42.37519" lon="0.15049">
        <ele>562.8</ele>
        <time>2017-07-02T10:39:35Z</time>
      </trkpt>
      <trkpt lat="42.37523" lon="0.1505">
        <ele>563.1</ele>
        <time>2017-07-02T10:39:37Z</time>
      </trkpt>
      <trkpt lat="42.37526" lon="0.15051">
        <ele>563.3</ele>
        <time>2017-07-02T10:39:39Z</time>
      </trkpt>
      <trkpt lat="42.3753" lon="0.15051">
        <ele>563.5</ele>
        <time>2017-07-02T10:39:41Z</time>
      </trkpt>
      <trkpt lat="42.37533" lon="0.15053">
        <ele>563.7</ele>
        <time>2017-07-02T10:39:43Z</time>
      </trkpt>
      <trkpt lat="42.37536" lon="0.15055">
        <ele>564.3</ele>
        <time>2017-07-02T10:39:45Z</time>
      </trkpt>
      <trkpt lat="42.3754" lon="0.15056">
        <ele>564.8</ele>
        <time>2017-07-02T10:39:47Z</time>
      </trkpt>
      <trkpt lat="42.37544" lon="0.15057">
        <ele>565.2</ele>
        <time>2017-07-02T10:39:49Z</time>
      </trkpt>
      <trkpt lat="42.37547" lon="0.15058">
        <ele>565.4</ele>
        <time>2017-07-02T10:39:51Z</time>
      </trkpt>
      <trkpt lat="42.37551" lon="0.15059">
        <ele>565.8</ele>
        <time>2017-07-02T10:39:53Z</time>
      </trkpt>
      <trkpt lat="42.37555" lon="0.15059">
        <ele>566.2</ele>
        <time>2017-07-02T10:39:55Z</time>
      </trkpt>
      <trkpt lat="42.37558" lon="0.15059">
        <ele>566.7</ele>
        <time>2017-07-02T10:39:57Z</time>
      </trkpt>
      <trkpt lat="42.37562" lon="0.1506">
        <ele>567.1</ele>
        <time>2017-07-02T10:39:59Z</time>
      </trkpt>
      <trkpt lat="42.37565" lon="0.15061">
        <ele>567.4</ele>
        <time>2017-07-02T10:40:01Z</time>
      </trkpt>
      <trkpt lat="42.37569" lon="0.15063">
        <ele>567.6</ele>
        <time>2017-07-02T10:40:03Z</time>
      </trkpt>
      <trkpt lat="42.37572" lon="0.15065">
        <ele>567.8</ele>
        <time>2017-07-02T10:40:05Z</time>
      </trkpt>
      <trkpt lat="42.37575" lon="0.15067">
        <ele>568.2</ele>
        <time>2017-07-02T10:40:07Z</time>
      </trkpt>
      <trkpt lat="42.37578" lon="0.1507">
        <ele>568.8</ele>
        <time>2017-07-02T10:40:09Z</time>
      </trkpt>
      <trkpt lat="42.37582" lon="0.15072">
        <ele>569.2</ele>
        <time>2017-07-02T10:40:11Z</time>
      </trkpt>
      <trkpt lat="42.37585" lon="0.15074">
        <ele>569.5</ele>
        <time>2017-07-02T10:40:13Z</time>
      </trkpt>
      <trkpt lat="42.37589" lon="0.15076">
        <ele>569.8</ele>
        <time>2017-07-02T10:40:15Z</time>
      </trkpt>
      <trkpt lat="42.37593" lon="0.15078">
        <ele>570.1</ele>
        <time>2017-07-02T10:40:17Z</time>
      </trkpt>
      <trkpt lat="42.37596" lon="0.1508">
        <ele>570.6</ele>
        <time>2017-07-02T10:40:19Z</time>
      </trkpt>
      <trkpt lat="42.37599" lon="0.15082">
        <ele>571.2</ele>
        <time>2017-07-02T10:40:21Z</time>
      </trkpt>
      <trkpt lat="42.37602" lon="0.15085">
        <ele>571.5</ele>
        <time>2017-07-02T10:40:23Z</time>
      </trkpt>
      <trkpt lat="42.37604" lon="0.15087">
        <ele>571.7</ele>
        <time>2017-07-02T10:40:25Z</time>
      </trkpt>
      <trkpt lat="42.37607" lon="0.15089">
        <ele>572</ele>
        <time>2017-07-02T10:40:27Z</time>
      </trkpt>
      <trkpt lat="42.3761" lon="0.1509">
        <ele>572.4</ele>
        <time>2017-07-02T10:40:29Z</time>
      </trkpt>
      <trkpt lat="42.37614" lon="0.15091">
        <ele>572.9</ele>
        <time>2017-07-02T10:40:31Z</time>
      </trkpt>
      <trkpt lat="42.37618" lon="0.15092">
        <ele>573.5</ele>
        <time>2017-07-02T10:40:33Z</time>
      </trkpt>
      <trkpt lat="42.37622" lon="0.15092">
        <ele>573.9</ele>
        <time>2017-07-02T10:40:35Z</time>
      </trkpt>
      <trkpt lat="42.37625" lon="0.15092">
        <ele>574.2</ele>
        <time>2017-07-02T10:40:37Z</time>
      </trkpt>
      <trkpt lat="42.37629" lon="0.15093">
        <ele>574.6</ele>
        <time>2017-07-02T10:40:39Z</time>
      </trkpt>
      <trkpt lat="42.37632" lon="0.15093">
        <ele>575.1</ele>
        <time>2017-07-02T10:40:41Z</time>
      </trkpt>
      <trkpt lat="42.37635" lon="0.15093">
        <ele>575.6</ele>
        <time>2017-07-02T10:40:43Z</time>
      </trkpt>
      <trkpt lat="42.37639" lon="0.15094">
        <ele>576</ele>
        <time>2017-07-02T10:40:45Z</time>
      </trkpt>
      <trkpt lat="42.37642" lon="0.15095">
        <ele>576.5</ele>
        <time>2017-07-02T10:40:47Z</time>
      </trkpt>
      <trkpt lat="42.37646" lon="0.15096">
        <ele>576.8</ele>
        <time>2017-07-02T10:40:49Z</time>
      </trkpt>
      <trkpt lat="42.3765" lon="0.15096">
        <ele>577.4</ele>
        <time>2017-07-02T10:40:51Z</time>
      </trkpt>
      <trkpt lat="42.37653" lon="0.15097">
        <ele>578</ele>
        <time>2017-07-02T10:40:53Z</time>
      </trkpt>
      <trkpt lat="42.37657" lon="0.15099">
        <ele>578.3</ele>
        <time>2017-07-02T10:40:55Z</time>
      </trkpt>
      <trkpt lat="42.3766" lon="0.15099">
        <ele>578.5</ele>
        <time>2017-07-02T10:40:57Z</time>
      </trkpt>
      <trkpt lat="42.37663" lon="0.151">
        <ele>578.7</ele>
        <time>2017-07-02T10:40:59Z</time>
      </trkpt>
      <trkpt lat="42.37667" lon="0.15101">
        <ele>579</ele>
        <time>2017-07-02T10:41:01Z</time>
      </trkpt>
      <trkpt lat="42.3767" lon="0.151">
        <ele>579.4</ele>
        <time>2017-07-02T10:41:03Z</time>
      </trkpt>
      <trkpt lat="42.37673" lon="0.151">
        <ele>579.9</ele>
        <time>2017-07-02T10:41:05Z</time>
      </trkpt>
      <trkpt lat="42.37676" lon="0.15098">
        <ele>580.4</ele>
        <time>2017-07-02T10:41:07Z</time>
      </trkpt>
      <trkpt lat="42.37679" lon="0.15097">
        <ele>580.6</ele>
        <time>2017-07-02T10:41:09Z</time>
      </trkpt>
      <trkpt lat="42.37682" lon="0.15095">
        <ele>580.8</ele>
        <time>2017-07-02T10:41:11Z</time>
      </trkpt>
      <trkpt lat="42.37685" lon="0.15092">
        <ele>581.1</ele>
        <time>2017-07-02T10:41:13Z</time>
      </trkpt>
      <trkpt lat="42.37687" lon="0.15089">
        <ele>581.4</ele>
        <time>2017-07-02T10:41:15Z</time>
      </trkpt>
      <trkpt lat="42.3769" lon="0.15086">
        <ele>582</ele>
        <time>2017-07-02T10:41:17Z</time>
      </trkpt>
      <trkpt lat="42.37693" lon="0.15084">
        <ele>582.5</ele>
        <time>2017-07-02T10:41:19Z</time>
      </trkpt>
      <trkpt lat="42.37696" lon="0.15082">
        <ele>583</ele>
        <time>2017-07-02T10:41:21Z</time>
      </trkpt>
      <trkpt lat="42.37699" lon="0.15079">
        <ele>583.2</ele>
        <time>2017-07-02T10:41:23Z</time>
      </trkpt>
      <trkpt lat="42.37701" lon="0.15075">
        <ele>583.4</ele>
        <time>2017-07-02T10:41:25Z</time>
      </trkpt>
      <trkpt lat="42.37704" lon="0.15072">
        <ele>583.6</ele>
        <time>2017-07-02T10:41:27Z</time>
      </trkpt>
      <trkpt lat="42.37707" lon="0.1507">
        <ele>583.8</ele>
        <time>2017-07-02T10:41:29Z</time>
      </trkpt>
      <trkpt lat="42.37709" lon="0.15067">
        <ele>584.1</ele>
        <time>2017-07-02T10:41:31Z</time>
      </trkpt>
      <trkpt lat="42.37712" lon="0.15064">
        <ele>584.7</ele>
        <time>2017-07-02T10:41:33Z</time>
      </trkpt>
      <trkpt lat="42.37714" lon="0.15061">
        <ele>585.2</ele>
        <time>2017-07-02T10:41:35Z</time>
      </trkpt>
      <trkpt lat="42.37717" lon="0.15059">
        <ele>585.5</ele>
        <time>2017-07-02T10:41:37Z</time>
      </trkpt>
      <trkpt lat="42.3772" lon="0.15056">
        <ele>585.8</ele>
        <time>2017-07-02T10:41:39Z</time>
      </trkpt>
      <trkpt lat="42.37723" lon="0.15054">
        <ele>586</ele>
        <time>2017-07-02T10:41:41Z</time>
      </trkpt>
      <trkpt lat="42.37726" lon="0.15052">
        <ele>586.5</ele>
        <time>2017-07-02T10:41:43Z</time>
      </trkpt>
      <trkpt lat="42.37729" lon="0.15049">
        <ele>587.1</ele>
        <time>2017-07-02T10:41:45Z</time>
      </trkpt>
      <trkpt lat="42.37732" lon="0.15047">
        <ele>587.5</ele>
        <time>2017-07-02T10:41:47Z</time>
      </trkpt>
      <trkpt lat="42.37735" lon="0.15046">
        <ele>587.8</ele>
        <time>2017-07-02T10:41:49Z</time>
      </trkpt>
      <trkpt lat="42.37738" lon="0.15044">
        <ele>588.4</ele>
        <time>2017-07-02T10:41:51Z</time>
      </trkpt>
      <trkpt lat="42.37741" lon="0.15041">
        <ele>589</ele>
        <time>2017-07-02T10:41:53Z</time>
      </trkpt>
      <trkpt lat="42.37744" lon="0.15038">
        <ele>589.5</ele>
        <time>2017-07-02T10:41:55Z</time>
      </trkpt>
      <trkpt lat="42.37746" lon="0.15036">
        <ele>589.9</ele>
        <time>2017-07-02T10:41:57Z</time>
      </trkpt>
      <trkpt lat="42.37749" lon="0.15034">
        <ele>590.1</ele>
        <time>2017-07-02T10:41:59Z</time>
      </trkpt>
      <trkpt lat="42.37752" lon="0.15032">
        <ele>590.2</ele>
        <time>2017-07-02T10:42:01Z</time>
      </trkpt>
      <trkpt lat="42.37756" lon="0.15031">
        <ele>590.4</ele>
        <time>2017-07-02T10:42:03Z</time>
      </trkpt>
      <trkpt lat="42.37758" lon="0.15029">
        <ele>590.6</ele>
        <time>2017-07-02T10:42:05Z</time>
      </trkpt>
      <trkpt lat="42.37761" lon="0.15027">
        <ele>591</ele>
        <time>2017-07-02T10:42:07Z</time>
      </trkpt>
      <trkpt lat="42.37764" lon="0.15026">
        <ele>591.5</ele>
        <time>2017-07-02T10:42:09Z</time>
      </trkpt>
      <trkpt lat="42.37767" lon="0.15024">
        <ele>591.9</ele>
        <time>2017-07-02T10:42:11Z</time>
      </trkpt>
      <trkpt lat="42.3777" lon="0.15021">
        <ele>592.2</ele>
        <time>2017-07-02T10:42:13Z</time>
      </trkpt>
      <trkpt lat="42.37773" lon="0.15018">
        <ele>592.4</ele>
        <time>2017-07-02T10:42:15Z</time>
      </trkpt>
      <trkpt lat="42.37775" lon="0.15014">
        <ele>592.6</ele>
        <time>2017-07-02T10:42:17Z</time>
      </trkpt>
      <trkpt lat="42.37777" lon="0.1501">
        <ele>593.1</ele>
        <time>2017-07-02T10:42:19Z</time>
      </trkpt>
      <trkpt lat="42.37779" lon="0.15006">
        <ele>593.6</ele>
        <time>2017-07-02T10:42:21Z</time>
      </trkpt>
      <trkpt lat="42.3778" lon="0.15002">
        <ele>594</ele>
        <time>2017-07-02T10:42:23Z</time>
      </trkpt>
      <trkpt lat="42.37783" lon="0.14999">
        <ele>594.3</ele>
        <time>2017-07-02T10:42:25Z</time>
      </trkpt>
      <trkpt lat="42.37786" lon="0.14995">
        <ele>594.6</ele>
        <time>2017-07-02T10:42:27Z</time>
      </trkpt>
      <trkpt lat="42.3779" lon="0.14992">
        <ele>595</ele>
        <time>2017-07-02T10:42:29Z</time>
      </trkpt>
      <trkpt lat="42.37793" lon="0.14988">
        <ele>595.6</ele>
        <time>2017-07-02T10:42:31Z</time>
      </trkpt>
      <trkpt lat="42.37795" lon="0.14985">
        <ele>596.2</ele>
        <time>2017-07-02T10:42:33Z</time>
      </trkpt>
      <trkpt lat="42.37798" lon="0.14982">
        <ele>596.4</ele>
        <time>2017-07-02T10:42:35Z</time>
      </trkpt>
      <trkpt lat="42.37801" lon="0.1498">
        <ele>596.6</ele>
        <time>2017-07-02T10:42:37Z</time>
      </trkpt>
      <trkpt lat="42.37804" lon="0.14978">
        <ele>596.8</ele>
        <time>2017-07-02T10:42:39Z</time>
      </trkpt>
      <trkpt lat="42.37808" lon="0.14977">
        <ele>597.2</ele>
        <time>2017-07-02T10:42:41Z</time>
      </trkpt>
      <trkpt lat="42.37811" lon="0.14976">
        <ele>597.8</ele>
        <time>2017-07-02T10:42:43Z</time>
      </trkpt>
      <trkpt lat="42.37815" lon="0.14975">
        <ele>598.2</ele>
        <time>2017-07-02T10:42:45Z</time>
      </trkpt>
      <trkpt lat="42.37819" lon="0.14974">
        <ele>598.5</ele>
        <time>2017-07-02T10:42:47Z</time>
      </trkpt>
      <trkpt lat="42.37823" lon="0.14973">
        <ele>598.7</ele>
        <time>2017-07-02T10:42:49Z</time>
      </trkpt>
      <trkpt lat="42.37826" lon="0.14972">
        <ele>598.8</ele>
        <time>2017-07-02T10:42:51Z</time>
      </trkpt>
      <trkpt lat="42.3783" lon="0.1497">
        <ele>599</ele>
        <time>2017-07-02T10:42:53Z</time>
      </trkpt>
      <trkpt lat="42.37833" lon="0.14968">
        <ele>599.3</ele>
        <time>2017-07-02T10:42:55Z</time>
      </trkpt>
      <trkpt lat="42.37836" lon="0.14966">
        <ele>599.8</ele>
        <time>2017-07-02T10:42:57Z</time>
      </trkpt>
      <trkpt lat="42.37839" lon="0.14964">
        <ele>600.5</ele>
        <time>2017-07-02T10:42:59Z</time>
      </trkpt>
      <trkpt lat="42.37842" lon="0.14961">
        <ele>600.9</ele>
        <time>2017-07-02T10:43:01Z</time>
      </trkpt>
      <trkpt lat="42.37845" lon="0.14959">
        <ele>601.4</ele>
        <time>2017-07-02T10:43:03Z</time>
      </trkpt>
      <trkpt lat="42.37849" lon="0.14957">
        <ele>602.2</ele>
        <time>2017-07-02T10:43:05Z</time>
      </trkpt>
      <trkpt lat="42.37852" lon="0.14955">
        <ele>602.9</ele>
        <time>2017-07-02T10:43:07Z</time>
      </trkpt>
      <trkpt lat="42.37856" lon="0.14953">
        <ele>603.2</ele>
        <time>2017-07-02T10:43:09Z</time>
      </trkpt>
      <trkpt lat="42.37859" lon="0.14951">
        <ele>603.5</ele>
        <time>2017-07-02T10:43:11Z</time>
      </trkpt>
      <trkpt lat="42.37862" lon="0.14949">
        <ele>604.1</ele>
        <time>2017-07-02T10:43:13Z</time>
      </trkpt>
      <trkpt lat="42.37865" lon="0.14947">
        <ele>604.6</ele>
        <time>2017-07-02T10:43:15Z</time>
      </trkpt>
      <trkpt lat="42.37868" lon="0.14945">
        <ele>605</ele>
        <time>2017-07-02T10:43:17Z</time>
      </trkpt>
      <trkpt lat="42.3787" lon="0.14943">
        <ele>605.3</ele>
        <time>2017-07-02T10:43:19Z</time>
      </trkpt>
      <trkpt lat="42.37873" lon="0.14941">
        <ele>605.5</ele>
        <time>2017-07-02T10:43:21Z</time>
      </trkpt>
      <trkpt lat="42.37875" lon="0.14939">
        <ele>605.9</ele>
        <time>2017-07-02T10:43:23Z</time>
      </trkpt>
      <trkpt lat="42.37878" lon="0.14937">
        <ele>606.3</ele>
        <time>2017-07-02T10:43:25Z</time>
      </trkpt>
      <trkpt lat="42.37882" lon="0.14935">
        <ele>606.9</ele>
        <time>2017-07-02T10:43:27Z</time>
      </trkpt>
      <trkpt lat="42.37885" lon="0.14933">
        <ele>607.2</ele>
        <time>2017-07-02T10:43:29Z</time>
      </trkpt>
      <trkpt lat="42.37889" lon="0.14931">
        <ele>607.4</ele>
        <time>2017-07-02T10:43:31Z</time>
      </trkpt>
      <trkpt lat="42.37892" lon="0.14929">
        <ele>607.7</ele>
        <time>2017-07-02T10:43:33Z</time>
      </trkpt>
      <trkpt lat="42.37895" lon="0.14927">
        <ele>607.9</ele>
        <time>2017-07-02T10:43:35Z</time>
      </trkpt>
      <trkpt lat="42.37899" lon="0.14924">
        <ele>608.3</ele>
        <time>2017-07-02T10:43:37Z</time>
      </trkpt>
      <trkpt lat="42.37901" lon="0.14921">
        <ele>608.9</ele>
        <time>2017-07-02T10:43:39Z</time>
      </trkpt>
      <trkpt lat="42.37905" lon="0.14917">
        <ele>609.5</ele>
        <time>2017-07-02T10:43:41Z</time>
      </trkpt>
      <trkpt lat="42.37908" lon="0.14914">
        <ele>609.8</ele>
        <time>2017-07-02T10:43:43Z</time>
      </trkpt>
      <trkpt lat="42.37911" lon="0.14912">
        <ele>610.5</ele>
        <time>2017-07-02T10:43:45Z</time>
      </trkpt>
      <trkpt lat="42.37915" lon="0.1491">
        <ele>611.2</ele>
        <time>2017-07-02T10:43:47Z</time>
      </trkpt>
      <trkpt lat="42.37919" lon="0.14909">
        <ele>611.8</ele>
        <time>2017-07-02T10:43:49Z</time>
      </trkpt>
      <trkpt lat="42.37923" lon="0.14909">
        <ele>612.3</ele>
        <time>2017-07-02T10:43:51Z</time>
      </trkpt>
      <trkpt lat="42.37927" lon="0.14908">
        <ele>612.9</ele>
        <time>2017-07-02T10:43:53Z</time>
      </trkpt>
      <trkpt lat="42.37932" lon="0.14907">
        <ele>613.4</ele>
        <time>2017-07-02T10:43:55Z</time>
      </trkpt>
      <trkpt lat="42.37936" lon="0.14907">
        <ele>613.6</ele>
        <time>2017-07-02T10:43:57Z</time>
      </trkpt>
      <trkpt lat="42.37939" lon="0.14908">
        <ele>613.8</ele>
        <time>2017-07-02T10:43:59Z</time>
      </trkpt>
      <trkpt lat="42.37943" lon="0.14909">
        <ele>614</ele>
        <time>2017-07-02T10:44:01Z</time>
      </trkpt>
      <trkpt lat="42.37946" lon="0.14909">
        <ele>614.1</ele>
        <time>2017-07-02T10:44:03Z</time>
      </trkpt>
      <trkpt lat="42.37949" lon="0.14908">
        <ele>614.2</ele>
        <time>2017-07-02T10:44:05Z</time>
      </trkpt>
      <trkpt lat="42.37952" lon="0.14906">
        <ele>614.4</ele>
        <time>2017-07-02T10:44:07Z</time>
      </trkpt>
      <trkpt lat="42.37955" lon="0.14902">
        <ele>614.6</ele>
        <time>2017-07-02T10:44:09Z</time>
      </trkpt>
      <trkpt lat="42.37956" lon="0.14898">
        <ele>614.9</ele>
        <time>2017-07-02T10:44:11Z</time>
      </trkpt>
      <trkpt lat="42.37957" lon="0.14893">
        <ele>615.4</ele>
        <time>2017-07-02T10:44:13Z</time>
      </trkpt>
      <trkpt lat="42.37957" lon="0.14888">
        <ele>615.9</ele>
        <time>2017-07-02T10:44:15Z</time>
      </trkpt>
      <trkpt lat="42.37957" lon="0.14883">
        <ele>616.2</ele>
        <time>2017-07-02T10:44:17Z</time>
      </trkpt>
      <trkpt lat="42.37956" lon="0.14878">
        <ele>616.5</ele>
        <time>2017-07-02T10:44:19Z</time>
      </trkpt>
      <trkpt lat="42.37955" lon="0.14874">
        <ele>616.9</ele>
        <time>2017-07-02T10:44:21Z</time>
      </trkpt>
      <trkpt lat="42.37953" lon="0.1487">
        <ele>617.6</ele>
        <time>2017-07-02T10:44:23Z</time>
      </trkpt>
      <trkpt lat="42.37951" lon="0.14865">
        <ele>618</ele>
        <time>2017-07-02T10:44:25Z</time>
      </trkpt>
      <trkpt lat="42.3795" lon="0.14861">
        <ele>618.4</ele>
        <time>2017-07-02T10:44:27Z</time>
      </trkpt>
      <trkpt lat="42.37949" lon="0.14857">
        <ele>619</ele>
        <time>2017-07-02T10:44:29Z</time>
      </trkpt>
      <trkpt lat="42.37949" lon="0.14852">
        <ele>619.7</ele>
        <time>2017-07-02T10:44:31Z</time>
      </trkpt>
      <trkpt lat="42.37949" lon="0.14847">
        <ele>620.3</ele>
        <time>2017-07-02T10:44:33Z</time>
      </trkpt>
      <trkpt lat="42.37949" lon="0.14843">
        <ele>620.6</ele>
        <time>2017-07-02T10:44:35Z</time>
      </trkpt>
      <trkpt lat="42.37949" lon="0.14839">
        <ele>620.8</ele>
        <time>2017-07-02T10:44:37Z</time>
      </trkpt>
      <trkpt lat="42.37951" lon="0.14835">
        <ele>621.1</ele>
        <time>2017-07-02T10:44:39Z</time>
      </trkpt>
      <trkpt lat="42.37953" lon="0.14832">
        <ele>621.8</ele>
        <time>2017-07-02T10:44:41Z</time>
      </trkpt>
      <trkpt lat="42.37956" lon="0.14829">
        <ele>622.4</ele>
        <time>2017-07-02T10:44:43Z</time>
      </trkpt>
      <trkpt lat="42.37959" lon="0.14826">
        <ele>622.7</ele>
        <time>2017-07-02T10:44:45Z</time>
      </trkpt>
      <trkpt lat="42.3796" lon="0.14822">
        <ele>623</ele>
        <time>2017-07-02T10:44:47Z</time>
      </trkpt>
      <trkpt lat="42.37962" lon="0.14818">
        <ele>623.6</ele>
        <time>2017-07-02T10:44:50Z</time>
      </trkpt>
      <trkpt lat="42.37964" lon="0.14815">
        <ele>624.1</ele>
        <time>2017-07-02T10:44:52Z</time>
      </trkpt>
      <trkpt lat="42.37966" lon="0.14812">
        <ele>624.5</ele>
        <time>2017-07-02T10:44:54Z</time>
      </trkpt>
      <trkpt lat="42.37968" lon="0.14808">
        <ele>624.9</ele>
        <time>2017-07-02T10:44:57Z</time>
      </trkpt>
      <trkpt lat="42.37969" lon="0.14804">
        <ele>625.2</ele>
        <time>2017-07-02T10:45:00Z</time>
      </trkpt>
      <trkpt lat="42.37969" lon="0.14799">
        <ele>625.8</ele>
        <time>2017-07-02T10:45:03Z</time>
      </trkpt>
      <trkpt lat="42.37971" lon="0.14794">
        <ele>626.5</ele>
        <time>2017-07-02T10:45:06Z</time>
      </trkpt>
      <trkpt lat="42.37972" lon="0.14789">
        <ele>627.1</ele>
        <time>2017-07-02T10:45:09Z</time>
      </trkpt>
      <trkpt lat="42.37973" lon="0.14785">
        <ele>627.3</ele>
        <time>2017-07-02T10:45:11Z</time>
      </trkpt>
      <trkpt lat="42.37974" lon="0.1478">
        <ele>627.9</ele>
        <time>2017-07-02T10:45:14Z</time>
      </trkpt>
      <trkpt lat="42.37974" lon="0.14776">
        <ele>628.2</ele>
        <time>2017-07-02T10:45:16Z</time>
      </trkpt>
      <trkpt lat="42.37974" lon="0.14771">
        <ele>628.7</ele>
        <time>2017-07-02T10:45:19Z</time>
      </trkpt>
      <trkpt lat="42.37975" lon="0.14766">
        <ele>628.9</ele>
        <time>2017-07-02T10:45:22Z</time>
      </trkpt>
      <trkpt lat="42.37976" lon="0.14763">
        <ele>628.9</ele>
        <time>2017-07-02T10:45:24Z</time>
      </trkpt>
      <trkpt lat="42.37977" lon="0.1476">
        <ele>629</ele>
        <time>2017-07-02T10:45:26Z</time>
      </trkpt>
      <trkpt lat="42.3798" lon="0.14757">
        <ele>629.1</ele>
        <time>2017-07-02T10:45:28Z</time>
      </trkpt>
      <trkpt lat="42.37983" lon="0.14754">
        <ele>629.2</ele>
        <time>2017-07-02T10:45:30Z</time>
      </trkpt>
      <trkpt lat="42.37987" lon="0.1475">
        <ele>629.4</ele>
        <time>2017-07-02T10:45:32Z</time>
      </trkpt>
      <trkpt lat="42.3799" lon="0.14746">
        <ele>629.5</ele>
        <time>2017-07-02T10:45:34Z</time>
      </trkpt>
      <trkpt lat="42.37994" lon="0.14742">
        <ele>629.7</ele>
        <time>2017-07-02T10:45:36Z</time>
      </trkpt>
      <trkpt lat="42.37998" lon="0.14739">
        <ele>629.9</ele>
        <time>2017-07-02T10:45:38Z</time>
      </trkpt>
      <trkpt lat="42.38002" lon="0.14735">
        <ele>630.3</ele>
        <time>2017-07-02T10:45:40Z</time>
      </trkpt>
      <trkpt lat="42.38005" lon="0.14732">
        <ele>630.7</ele>
        <time>2017-07-02T10:45:42Z</time>
      </trkpt>
      <trkpt lat="42.38008" lon="0.14729">
        <ele>630.8</ele>
        <time>2017-07-02T10:45:44Z</time>
      </trkpt>
      <trkpt lat="42.38012" lon="0.14724">
        <ele>631</ele>
        <time>2017-07-02T10:45:46Z</time>
      </trkpt>
      <trkpt lat="42.38016" lon="0.1472">
        <ele>631.1</ele>
        <time>2017-07-02T10:45:48Z</time>
      </trkpt>
      <trkpt lat="42.38019" lon="0.14716">
        <ele>631.3</ele>
        <time>2017-07-02T10:45:50Z</time>
      </trkpt>
      <trkpt lat="42.38022" lon="0.1471">
        <ele>631.4</ele>
        <time>2017-07-02T10:45:52Z</time>
      </trkpt>
      <trkpt lat="42.38024" lon="0.14707">
        <ele>631.5</ele>
        <time>2017-07-02T10:45:53Z</time>
      </trkpt>
      <trkpt lat="42.38025" lon="0.14704">
        <ele>631.6</ele>
        <time>2017-07-02T10:45:54Z</time>
      </trkpt>
      <trkpt lat="42.38027" lon="0.14701">
        <ele>631.6</ele>
        <time>2017-07-02T10:45:55Z</time>
      </trkpt>
      <trkpt lat="42.3803" lon="0.14695">
        <ele>631.9</ele>
        <time>2017-07-02T10:45:57Z</time>
      </trkpt>
      <trkpt lat="42.38032" lon="0.14692">
        <ele>632.1</ele>
        <time>2017-07-02T10:45:58Z</time>
      </trkpt>
      <trkpt lat="42.38034" lon="0.14689">
        <ele>632.4</ele>
        <time>2017-07-02T10:45:59Z</time>
      </trkpt>
      <trkpt lat="42.38036" lon="0.14685">
        <ele>632.6</ele>
        <time>2017-07-02T10:46:00Z</time>
      </trkpt>
      <trkpt lat="42.38037" lon="0.14681">
        <ele>632.9</ele>
        <time>2017-07-02T10:46:01Z</time>
      </trkpt>
      <trkpt lat="42.38039" lon="0.14677">
        <ele>633</ele>
        <time>2017-07-02T10:46:02Z</time>
      </trkpt>
      <trkpt lat="42.38041" lon="0.14674">
        <ele>633.1</ele>
        <time>2017-07-02T10:46:03Z</time>
      </trkpt>
      <trkpt lat="42.38043" lon="0.1467">
        <ele>633.2</ele>
        <time>2017-07-02T10:46:04Z</time>
      </trkpt>
      <trkpt lat="42.38044" lon="0.14666">
        <ele>633.3</ele>
        <time>2017-07-02T10:46:05Z</time>
      </trkpt>
      <trkpt lat="42.38046" lon="0.14662">
        <ele>633.4</ele>
        <time>2017-07-02T10:46:06Z</time>
      </trkpt>
      <trkpt lat="42.38048" lon="0.14657">
        <ele>633.5</ele>
        <time>2017-07-02T10:46:07Z</time>
      </trkpt>
      <trkpt lat="42.38049" lon="0.14653">
        <ele>633.6</ele>
        <time>2017-07-02T10:46:08Z</time>
      </trkpt>
      <trkpt lat="42.38051" lon="0.1465">
        <ele>633.7</ele>
        <time>2017-07-02T10:46:09Z</time>
      </trkpt>
      <trkpt lat="42.38053" lon="0.14646">
        <ele>633.8</ele>
        <time>2017-07-02T10:46:10Z</time>
      </trkpt>
      <trkpt lat="42.38054" lon="0.14643">
        <ele>633.8</ele>
        <time>2017-07-02T10:46:11Z</time>
      </trkpt>
      <trkpt lat="42.38057" lon="0.14637">
        <ele>634</ele>
        <time>2017-07-02T10:46:13Z</time>
      </trkpt>
      <trkpt lat="42.38059" lon="0.14633">
        <ele>634.1</ele>
        <time>2017-07-02T10:46:14Z</time>
      </trkpt>
      <trkpt lat="42.3806" lon="0.1463">
        <ele>634.1</ele>
        <time>2017-07-02T10:46:15Z</time>
      </trkpt>
      <trkpt lat="42.38062" lon="0.14627">
        <ele>634.2</ele>
        <time>2017-07-02T10:46:16Z</time>
      </trkpt>
      <trkpt lat="42.38063" lon="0.14624">
        <ele>634.3</ele>
        <time>2017-07-02T10:46:17Z</time>
      </trkpt>
      <trkpt lat="42.38066" lon="0.14617">
        <ele>634.5</ele>
        <time>2017-07-02T10:46:19Z</time>
      </trkpt>
      <trkpt lat="42.38067" lon="0.14614">
        <ele>634.7</ele>
        <time>2017-07-02T10:46:20Z</time>
      </trkpt>
      <trkpt lat="42.38068" lon="0.1461">
        <ele>634.9</ele>
        <time>2017-07-02T10:46:21Z</time>
      </trkpt>
      <trkpt lat="42.3807" lon="0.14607">
        <ele>635.1</ele>
        <time>2017-07-02T10:46:22Z</time>
      </trkpt>
      <trkpt lat="42.38072" lon="0.14604">
        <ele>635.3</ele>
        <time>2017-07-02T10:46:23Z</time>
      </trkpt>
      <trkpt lat="42.38073" lon="0.146">
        <ele>635.4</ele>
        <time>2017-07-02T10:46:24Z</time>
      </trkpt>
      <trkpt lat="42.38075" lon="0.14597">
        <ele>635.5</ele>
        <time>2017-07-02T10:46:25Z</time>
      </trkpt>
      <trkpt lat="42.38076" lon="0.14593">
        <ele>635.6</ele>
        <time>2017-07-02T10:46:26Z</time>
      </trkpt>
      <trkpt lat="42.38078" lon="0.1459">
        <ele>635.7</ele>
        <time>2017-07-02T10:46:27Z</time>
      </trkpt>
      <trkpt lat="42.38079" lon="0.14586">
        <ele>635.8</ele>
        <time>2017-07-02T10:46:28Z</time>
      </trkpt>
      <trkpt lat="42.3808" lon="0.14583">
        <ele>635.9</ele>
        <time>2017-07-02T10:46:29Z</time>
      </trkpt>
      <trkpt lat="42.38082" lon="0.14576">
        <ele>636.1</ele>
        <time>2017-07-02T10:46:31Z</time>
      </trkpt>
      <trkpt lat="42.38082" lon="0.14573">
        <ele>636.2</ele>
        <time>2017-07-02T10:46:32Z</time>
      </trkpt>
      <trkpt lat="42.38083" lon="0.14569">
        <ele>636.3</ele>
        <time>2017-07-02T10:46:33Z</time>
      </trkpt>
      <trkpt lat="42.38083" lon="0.14565">
        <ele>636.4</ele>
        <time>2017-07-02T10:46:34Z</time>
      </trkpt>
      <trkpt lat="42.38084" lon="0.14562">
        <ele>636.5</ele>
        <time>2017-07-02T10:46:35Z</time>
      </trkpt>
      <trkpt lat="42.38085" lon="0.14555">
        <ele>636.7</ele>
        <time>2017-07-02T10:46:37Z</time>
      </trkpt>
      <trkpt lat="42.38085" lon="0.14548">
        <ele>637</ele>
        <time>2017-07-02T10:46:39Z</time>
      </trkpt>
      <trkpt lat="42.38085" lon="0.14541">
        <ele>637.4</ele>
        <time>2017-07-02T10:46:41Z</time>
      </trkpt>
      <trkpt lat="42.38084" lon="0.14535">
        <ele>637.8</ele>
        <time>2017-07-02T10:46:43Z</time>
      </trkpt>
      <trkpt lat="42.38084" lon="0.14528">
        <ele>638</ele>
        <time>2017-07-02T10:46:45Z</time>
      </trkpt>
      <trkpt lat="42.38084" lon="0.14522">
        <ele>638.1</ele>
        <time>2017-07-02T10:46:47Z</time>
      </trkpt>
      <trkpt lat="42.38084" lon="0.14515">
        <ele>638.3</ele>
        <time>2017-07-02T10:46:49Z</time>
      </trkpt>
      <trkpt lat="42.38087" lon="0.14509">
        <ele>638.4</ele>
        <time>2017-07-02T10:46:51Z</time>
      </trkpt>
      <trkpt lat="42.38089" lon="0.14503">
        <ele>638.6</ele>
        <time>2017-07-02T10:46:53Z</time>
      </trkpt>
      <trkpt lat="42.38092" lon="0.14498">
        <ele>639</ele>
        <time>2017-07-02T10:46:55Z</time>
      </trkpt>
      <trkpt lat="42.38094" lon="0.14492">
        <ele>639.3</ele>
        <time>2017-07-02T10:46:57Z</time>
      </trkpt>
      <trkpt lat="42.38096" lon="0.14486">
        <ele>639.7</ele>
        <time>2017-07-02T10:46:59Z</time>
      </trkpt>
      <trkpt lat="42.38099" lon="0.1448">
        <ele>639.9</ele>
        <time>2017-07-02T10:47:01Z</time>
      </trkpt>
      <trkpt lat="42.38102" lon="0.14475">
        <ele>640</ele>
        <time>2017-07-02T10:47:03Z</time>
      </trkpt>
      <trkpt lat="42.38104" lon="0.14472">
        <ele>640.1</ele>
        <time>2017-07-02T10:47:04Z</time>
      </trkpt>
      <trkpt lat="42.38105" lon="0.14468">
        <ele>640.1</ele>
        <time>2017-07-02T10:47:05Z</time>
      </trkpt>
      <trkpt lat="42.38106" lon="0.14465">
        <ele>640.2</ele>
        <time>2017-07-02T10:47:06Z</time>
      </trkpt>
      <trkpt lat="42.38107" lon="0.14461">
        <ele>640.2</ele>
        <time>2017-07-02T10:47:07Z</time>
      </trkpt>
      <trkpt lat="42.38108" lon="0.14458">
        <ele>640.3</ele>
        <time>2017-07-02T10:47:08Z</time>
      </trkpt>
      <trkpt lat="42.38109" lon="0.14454">
        <ele>640.3</ele>
        <time>2017-07-02T10:47:09Z</time>
      </trkpt>
      <trkpt lat="42.3811" lon="0.14451">
        <ele>640.4</ele>
        <time>2017-07-02T10:47:10Z</time>
      </trkpt>
      <trkpt lat="42.38112" lon="0.14445">
        <ele>640.5</ele>
        <time>2017-07-02T10:47:12Z</time>
      </trkpt>
      <trkpt lat="42.38114" lon="0.14438">
        <ele>640.6</ele>
        <time>2017-07-02T10:47:14Z</time>
      </trkpt>
      <trkpt lat="42.38116" lon="0.14435">
        <ele>640.7</ele>
        <time>2017-07-02T10:47:15Z</time>
      </trkpt>
      <trkpt lat="42.38118" lon="0.14432">
        <ele>640.7</ele>
        <time>2017-07-02T10:47:16Z</time>
      </trkpt>
      <trkpt lat="42.38121" lon="0.14426">
        <ele>641</ele>
        <time>2017-07-02T10:47:18Z</time>
      </trkpt>
      <trkpt lat="42.38125" lon="0.14422">
        <ele>641.5</ele>
        <time>2017-07-02T10:47:20Z</time>
      </trkpt>
      <trkpt lat="42.38129" lon="0.14417">
        <ele>642.1</ele>
        <time>2017-07-02T10:47:22Z</time>
      </trkpt>
      <trkpt lat="42.38132" lon="0.14414">
        <ele>642.5</ele>
        <time>2017-07-02T10:47:24Z</time>
      </trkpt>
      <trkpt lat="42.38136" lon="0.1441">
        <ele>642.9</ele>
        <time>2017-07-02T10:47:26Z</time>
      </trkpt>
      <trkpt lat="42.3814" lon="0.14407">
        <ele>643.4</ele>
        <time>2017-07-02T10:47:28Z</time>
      </trkpt>
      <trkpt lat="42.38144" lon="0.14404">
        <ele>644</ele>
        <time>2017-07-02T10:47:30Z</time>
      </trkpt>
      <trkpt lat="42.38148" lon="0.14401">
        <ele>644.4</ele>
        <time>2017-07-02T10:47:32Z</time>
      </trkpt>
      <trkpt lat="42.38151" lon="0.14397">
        <ele>644.7</ele>
        <time>2017-07-02T10:47:34Z</time>
      </trkpt>
      <trkpt lat="42.38155" lon="0.14394">
        <ele>644.9</ele>
        <time>2017-07-02T10:47:36Z</time>
      </trkpt>
      <trkpt lat="42.38159" lon="0.1439">
        <ele>645.2</ele>
        <time>2017-07-02T10:47:38Z</time>
      </trkpt>
      <trkpt lat="42.38162" lon="0.14386">
        <ele>645.7</ele>
        <time>2017-07-02T10:47:40Z</time>
      </trkpt>
      <trkpt lat="42.38166" lon="0.14382">
        <ele>646.2</ele>
        <time>2017-07-02T10:47:42Z</time>
      </trkpt>
      <trkpt lat="42.3817" lon="0.14377">
        <ele>646.6</ele>
        <time>2017-07-02T10:47:44Z</time>
      </trkpt>
      <trkpt lat="42.38172" lon="0.14374">
        <ele>646.8</ele>
        <time>2017-07-02T10:47:45Z</time>
      </trkpt>
      <trkpt lat="42.38174" lon="0.14371">
        <ele>646.9</ele>
        <time>2017-07-02T10:47:46Z</time>
      </trkpt>
      <trkpt lat="42.38175" lon="0.14369">
        <ele>647</ele>
        <time>2017-07-02T10:47:47Z</time>
      </trkpt>
      <trkpt lat="42.38179" lon="0.14363">
        <ele>647.2</ele>
        <time>2017-07-02T10:47:49Z</time>
      </trkpt>
      <trkpt lat="42.38182" lon="0.14358">
        <ele>647.5</ele>
        <time>2017-07-02T10:47:51Z</time>
      </trkpt>
      <trkpt lat="42.38185" lon="0.14353">
        <ele>647.9</ele>
        <time>2017-07-02T10:47:53Z</time>
      </trkpt>
      <trkpt lat="42.38188" lon="0.14347">
        <ele>648.5</ele>
        <time>2017-07-02T10:47:55Z</time>
      </trkpt>
      <trkpt lat="42.38192" lon="0.14342">
        <ele>648.7</ele>
        <time>2017-07-02T10:47:57Z</time>
      </trkpt>
      <trkpt lat="42.38195" lon="0.14338">
        <ele>648.8</ele>
        <time>2017-07-02T10:47:59Z</time>
      </trkpt>
      <trkpt lat="42.38199" lon="0.14334">
        <ele>648.9</ele>
        <time>2017-07-02T10:48:01Z</time>
      </trkpt>
      <trkpt lat="42.38203" lon="0.1433">
        <ele>649.1</ele>
        <time>2017-07-02T10:48:03Z</time>
      </trkpt>
      <trkpt lat="42.38207" lon="0.14325">
        <ele>649.2</ele>
        <time>2017-07-02T10:48:05Z</time>
      </trkpt>
      <trkpt lat="42.38209" lon="0.14323">
        <ele>649.3</ele>
        <time>2017-07-02T10:48:06Z</time>
      </trkpt>
      <trkpt lat="42.38212" lon="0.1432">
        <ele>649.4</ele>
        <time>2017-07-02T10:48:07Z</time>
      </trkpt>
      <trkpt lat="42.38214" lon="0.14318">
        <ele>649.5</ele>
        <time>2017-07-02T10:48:08Z</time>
      </trkpt>
      <trkpt lat="42.38216" lon="0.14315">
        <ele>649.6</ele>
        <time>2017-07-02T10:48:09Z</time>
      </trkpt>
      <trkpt lat="42.38221" lon="0.14311">
        <ele>649.9</ele>
        <time>2017-07-02T10:48:11Z</time>
      </trkpt>
      <trkpt lat="42.38223" lon="0.14308">
        <ele>650.1</ele>
        <time>2017-07-02T10:48:12Z</time>
      </trkpt>
      <trkpt lat="42.38225" lon="0.14306">
        <ele>650.4</ele>
        <time>2017-07-02T10:48:13Z</time>
      </trkpt>
      <trkpt lat="42.38228" lon="0.14304">
        <ele>650.8</ele>
        <time>2017-07-02T10:48:14Z</time>
      </trkpt>
      <trkpt lat="42.38232" lon="0.14301">
        <ele>651.2</ele>
        <time>2017-07-02T10:48:16Z</time>
      </trkpt>
      <trkpt lat="42.38237" lon="0.14299">
        <ele>651.4</ele>
        <time>2017-07-02T10:48:18Z</time>
      </trkpt>
      <trkpt lat="42.38241" lon="0.14296">
        <ele>651.6</ele>
        <time>2017-07-02T10:48:20Z</time>
      </trkpt>
      <trkpt lat="42.38246" lon="0.14293">
        <ele>651.8</ele>
        <time>2017-07-02T10:48:22Z</time>
      </trkpt>
      <trkpt lat="42.38248" lon="0.14291">
        <ele>651.9</ele>
        <time>2017-07-02T10:48:23Z</time>
      </trkpt>
      <trkpt lat="42.38251" lon="0.14289">
        <ele>652.1</ele>
        <time>2017-07-02T10:48:24Z</time>
      </trkpt>
      <trkpt lat="42.38253" lon="0.14288">
        <ele>652.2</ele>
        <time>2017-07-02T10:48:25Z</time>
      </trkpt>
      <trkpt lat="42.38256" lon="0.14287">
        <ele>652.3</ele>
        <time>2017-07-02T10:48:26Z</time>
      </trkpt>
      <trkpt lat="42.38261" lon="0.14284">
        <ele>652.9</ele>
        <time>2017-07-02T10:48:28Z</time>
      </trkpt>
      <trkpt lat="42.38264" lon="0.14283">
        <ele>653.2</ele>
        <time>2017-07-02T10:48:29Z</time>
      </trkpt>
      <trkpt lat="42.38268" lon="0.14281">
        <ele>653.5</ele>
        <time>2017-07-02T10:48:31Z</time>
      </trkpt>
      <trkpt lat="42.38271" lon="0.14279">
        <ele>653.6</ele>
        <time>2017-07-02T10:48:33Z</time>
      </trkpt>
      <trkpt lat="42.38275" lon="0.14277">
        <ele>653.8</ele>
        <time>2017-07-02T10:48:35Z</time>
      </trkpt>
      <trkpt lat="42.38279" lon="0.14276">
        <ele>653.9</ele>
        <time>2017-07-02T10:48:37Z</time>
      </trkpt>
      <trkpt lat="42.38284" lon="0.14275">
        <ele>654.1</ele>
        <time>2017-07-02T10:48:39Z</time>
      </trkpt>
      <trkpt lat="42.38288" lon="0.14274">
        <ele>654.3</ele>
        <time>2017-07-02T10:48:41Z</time>
      </trkpt>
      <trkpt lat="42.38293" lon="0.14274">
        <ele>654.5</ele>
        <time>2017-07-02T10:48:43Z</time>
      </trkpt>
      <trkpt lat="42.38298" lon="0.14273">
        <ele>654.7</ele>
        <time>2017-07-02T10:48:45Z</time>
      </trkpt>
      <trkpt lat="42.38303" lon="0.14272">
        <ele>655.1</ele>
        <time>2017-07-02T10:48:47Z</time>
      </trkpt>
      <trkpt lat="42.38308" lon="0.14269">
        <ele>655.6</ele>
        <time>2017-07-02T10:48:49Z</time>
      </trkpt>
      <trkpt lat="42.38311" lon="0.14268">
        <ele>655.8</ele>
        <time>2017-07-02T10:48:50Z</time>
      </trkpt>
      <trkpt lat="42.38316" lon="0.14266">
        <ele>656</ele>
        <time>2017-07-02T10:48:52Z</time>
      </trkpt>
      <trkpt lat="42.3832" lon="0.14265">
        <ele>656.1</ele>
        <time>2017-07-02T10:48:54Z</time>
      </trkpt>
      <trkpt lat="42.38324" lon="0.14264">
        <ele>656.3</ele>
        <time>2017-07-02T10:48:56Z</time>
      </trkpt>
      <trkpt lat="42.38329" lon="0.14263">
        <ele>656.4</ele>
        <time>2017-07-02T10:48:58Z</time>
      </trkpt>
      <trkpt lat="42.38333" lon="0.14262">
        <ele>656.6</ele>
        <time>2017-07-02T10:49:00Z</time>
      </trkpt>
      <trkpt lat="42.38338" lon="0.14261">
        <ele>656.7</ele>
        <time>2017-07-02T10:49:02Z</time>
      </trkpt>
      <trkpt lat="42.38343" lon="0.1426">
        <ele>656.9</ele>
        <time>2017-07-02T10:49:04Z</time>
      </trkpt>
      <trkpt lat="42.38348" lon="0.14258">
        <ele>657</ele>
        <time>2017-07-02T10:49:06Z</time>
      </trkpt>
      <trkpt lat="42.38352" lon="0.14257">
        <ele>657.5</ele>
        <time>2017-07-02T10:49:08Z</time>
      </trkpt>
      <trkpt lat="42.38357" lon="0.14255">
        <ele>658</ele>
        <time>2017-07-02T10:49:10Z</time>
      </trkpt>
      <trkpt lat="42.38362" lon="0.14254">
        <ele>658.3</ele>
        <time>2017-07-02T10:49:12Z</time>
      </trkpt>
      <trkpt lat="42.38366" lon="0.14254">
        <ele>658.5</ele>
        <time>2017-07-02T10:49:14Z</time>
      </trkpt>
      <trkpt lat="42.38371" lon="0.14253">
        <ele>658.7</ele>
        <time>2017-07-02T10:49:16Z</time>
      </trkpt>
      <trkpt lat="42.38375" lon="0.14251">
        <ele>659</ele>
        <time>2017-07-02T10:49:18Z</time>
      </trkpt>
      <trkpt lat="42.38379" lon="0.14249">
        <ele>659.2</ele>
        <time>2017-07-02T10:49:20Z</time>
      </trkpt>
      <trkpt lat="42.38384" lon="0.14248">
        <ele>659.7</ele>
        <time>2017-07-02T10:49:22Z</time>
      </trkpt>
      <trkpt lat="42.38387" lon="0.14246">
        <ele>660.2</ele>
        <time>2017-07-02T10:49:24Z</time>
      </trkpt>
      <trkpt lat="42.38391" lon="0.14245">
        <ele>660.7</ele>
        <time>2017-07-02T10:49:26Z</time>
      </trkpt>
      <trkpt lat="42.38394" lon="0.14243">
        <ele>661</ele>
        <time>2017-07-02T10:49:28Z</time>
      </trkpt>
      <trkpt lat="42.38397" lon="0.14242">
        <ele>661.3</ele>
        <time>2017-07-02T10:49:30Z</time>
      </trkpt>
      <trkpt lat="42.384" lon="0.14241">
        <ele>661.7</ele>
        <time>2017-07-02T10:49:32Z</time>
      </trkpt>
      <trkpt lat="42.38403" lon="0.14241">
        <ele>662.2</ele>
        <time>2017-07-02T10:49:34Z</time>
      </trkpt>
      <trkpt lat="42.38406" lon="0.1424">
        <ele>662.7</ele>
        <time>2017-07-02T10:49:36Z</time>
      </trkpt>
      <trkpt lat="42.38409" lon="0.1424">
        <ele>663.1</ele>
        <time>2017-07-02T10:49:38Z</time>
      </trkpt>
      <trkpt lat="42.38412" lon="0.1424">
        <ele>663.4</ele>
        <time>2017-07-02T10:49:40Z</time>
      </trkpt>
      <trkpt lat="42.38414" lon="0.14239">
        <ele>663.7</ele>
        <time>2017-07-02T10:49:42Z</time>
      </trkpt>
      <trkpt lat="42.38417" lon="0.14238">
        <ele>664.2</ele>
        <time>2017-07-02T10:49:44Z</time>
      </trkpt>
      <trkpt lat="42.3842" lon="0.14238">
        <ele>664.7</ele>
        <time>2017-07-02T10:49:46Z</time>
      </trkpt>
      <trkpt lat="42.38423" lon="0.14237">
        <ele>665.2</ele>
        <time>2017-07-02T10:49:48Z</time>
      </trkpt>
      <trkpt lat="42.38426" lon="0.14236">
        <ele>665.6</ele>
        <time>2017-07-02T10:49:50Z</time>
      </trkpt>
      <trkpt lat="42.38429" lon="0.14235">
        <ele>666</ele>
        <time>2017-07-02T10:49:52Z</time>
      </trkpt>
      <trkpt lat="42.38432" lon="0.14235">
        <ele>666.5</ele>
        <time>2017-07-02T10:49:54Z</time>
      </trkpt>
      <trkpt lat="42.38435" lon="0.14234">
        <ele>667</ele>
        <time>2017-07-02T10:49:56Z</time>
      </trkpt>
      <trkpt lat="42.38439" lon="0.14234">
        <ele>667.4</ele>
        <time>2017-07-02T10:49:58Z</time>
      </trkpt>
      <trkpt lat="42.38442" lon="0.14234">
        <ele>667.8</ele>
        <time>2017-07-02T10:50:00Z</time>
      </trkpt>
      <trkpt lat="42.38445" lon="0.14234">
        <ele>668.1</ele>
        <time>2017-07-02T10:50:02Z</time>
      </trkpt>
      <trkpt lat="42.38449" lon="0.14235">
        <ele>668.3</ele>
        <time>2017-07-02T10:50:04Z</time>
      </trkpt>
      <trkpt lat="42.38451" lon="0.14237">
        <ele>668.8</ele>
        <time>2017-07-02T10:50:06Z</time>
      </trkpt>
      <trkpt lat="42.38454" lon="0.14238">
        <ele>669.2</ele>
        <time>2017-07-02T10:50:08Z</time>
      </trkpt>
      <trkpt lat="42.38457" lon="0.1424">
        <ele>669.7</ele>
        <time>2017-07-02T10:50:10Z</time>
      </trkpt>
      <trkpt lat="42.3846" lon="0.14241">
        <ele>669.9</ele>
        <time>2017-07-02T10:50:12Z</time>
      </trkpt>
      <trkpt lat="42.38463" lon="0.14241">
        <ele>670</ele>
        <time>2017-07-02T10:50:14Z</time>
      </trkpt>
      <trkpt lat="42.38466" lon="0.14241">
        <ele>670.2</ele>
        <time>2017-07-02T10:50:16Z</time>
      </trkpt>
      <trkpt lat="42.38469" lon="0.14241">
        <ele>670.4</ele>
        <time>2017-07-02T10:50:18Z</time>
      </trkpt>
      <trkpt lat="42.38472" lon="0.14241">
        <ele>670.8</ele>
        <time>2017-07-02T10:50:20Z</time>
      </trkpt>
      <trkpt lat="42.38475" lon="0.1424">
        <ele>671.3</ele>
        <time>2017-07-02T10:50:22Z</time>
      </trkpt>
      <trkpt lat="42.38478" lon="0.14238">
        <ele>671.9</ele>
        <time>2017-07-02T10:50:24Z</time>
      </trkpt>
      <trkpt lat="42.38482" lon="0.14237">
        <ele>672.2</ele>
        <time>2017-07-02T10:50:26Z</time>
      </trkpt>
      <trkpt lat="42.38485" lon="0.14236">
        <ele>672.5</ele>
        <time>2017-07-02T10:50:28Z</time>
      </trkpt>
      <trkpt lat="42.38488" lon="0.14235">
        <ele>672.8</ele>
        <time>2017-07-02T10:50:30Z</time>
      </trkpt>
      <trkpt lat="42.38491" lon="0.14233">
        <ele>673.3</ele>
        <time>2017-07-02T10:50:32Z</time>
      </trkpt>
      <trkpt lat="42.38494" lon="0.14232">
        <ele>673.8</ele>
        <time>2017-07-02T10:50:34Z</time>
      </trkpt>
      <trkpt lat="42.38498" lon="0.1423">
        <ele>674.2</ele>
        <time>2017-07-02T10:50:36Z</time>
      </trkpt>
      <trkpt lat="42.38501" lon="0.14229">
        <ele>674.5</ele>
        <time>2017-07-02T10:50:38Z</time>
      </trkpt>
      <trkpt lat="42.38504" lon="0.14228">
        <ele>674.8</ele>
        <time>2017-07-02T10:50:40Z</time>
      </trkpt>
      <trkpt lat="42.38507" lon="0.14228">
        <ele>675.1</ele>
        <time>2017-07-02T10:50:42Z</time>
      </trkpt>
      <trkpt lat="42.38511" lon="0.14227">
        <ele>675.6</ele>
        <time>2017-07-02T10:50:44Z</time>
      </trkpt>
      <trkpt lat="42.38514" lon="0.14226">
        <ele>676</ele>
        <time>2017-07-02T10:50:46Z</time>
      </trkpt>
      <trkpt lat="42.38517" lon="0.14226">
        <ele>676.5</ele>
        <time>2017-07-02T10:50:48Z</time>
      </trkpt>
      <trkpt lat="42.38521" lon="0.14225">
        <ele>676.8</ele>
        <time>2017-07-02T10:50:50Z</time>
      </trkpt>
      <trkpt lat="42.38525" lon="0.14225">
        <ele>677.1</ele>
        <time>2017-07-02T10:50:52Z</time>
      </trkpt>
      <trkpt lat="42.38528" lon="0.14225">
        <ele>677.3</ele>
        <time>2017-07-02T10:50:54Z</time>
      </trkpt>
      <trkpt lat="42.38532" lon="0.14225">
        <ele>677.5</ele>
        <time>2017-07-02T10:50:56Z</time>
      </trkpt>
      <trkpt lat="42.38536" lon="0.14225">
        <ele>678.1</ele>
        <time>2017-07-02T10:50:58Z</time>
      </trkpt>
      <trkpt lat="42.3854" lon="0.14226">
        <ele>678.5</ele>
        <time>2017-07-02T10:51:00Z</time>
      </trkpt>
      <trkpt lat="42.38543" lon="0.1423">
        <ele>678.8</ele>
        <time>2017-07-02T10:51:02Z</time>
      </trkpt>
      <trkpt lat="42.38546" lon="0.14235">
        <ele>679</ele>
        <time>2017-07-02T10:51:04Z</time>
      </trkpt>
      <trkpt lat="42.38549" lon="0.14241">
        <ele>679.3</ele>
        <time>2017-07-02T10:51:06Z</time>
      </trkpt>
      <trkpt lat="42.38549" lon="0.14247">
        <ele>679.7</ele>
        <time>2017-07-02T10:51:08Z</time>
      </trkpt>
      <trkpt lat="42.38548" lon="0.14253">
        <ele>680.3</ele>
        <time>2017-07-02T10:51:10Z</time>
      </trkpt>
      <trkpt lat="42.38547" lon="0.1426">
        <ele>680.8</ele>
        <time>2017-07-02T10:51:12Z</time>
      </trkpt>
      <trkpt lat="42.38547" lon="0.14267">
        <ele>681.1</ele>
        <time>2017-07-02T10:51:14Z</time>
      </trkpt>
      <trkpt lat="42.38546" lon="0.14273">
        <ele>681.3</ele>
        <time>2017-07-02T10:51:16Z</time>
      </trkpt>
      <trkpt lat="42.38545" lon="0.1428">
        <ele>681.4</ele>
        <time>2017-07-02T10:51:18Z</time>
      </trkpt>
      <trkpt lat="42.38545" lon="0.14287">
        <ele>681.6</ele>
        <time>2017-07-02T10:51:20Z</time>
      </trkpt>
      <trkpt lat="42.38545" lon="0.14293">
        <ele>681.8</ele>
        <time>2017-07-02T10:51:22Z</time>
      </trkpt>
      <trkpt lat="42.38544" lon="0.143">
        <ele>682.2</ele>
        <time>2017-07-02T10:51:24Z</time>
      </trkpt>
      <trkpt lat="42.38543" lon="0.14304">
        <ele>682.4</ele>
        <time>2017-07-02T10:51:25Z</time>
      </trkpt>
      <trkpt lat="42.3854" lon="0.1431">
        <ele>683</ele>
        <time>2017-07-02T10:51:27Z</time>
      </trkpt>
      <trkpt lat="42.38538" lon="0.14316">
        <ele>683.3</ele>
        <time>2017-07-02T10:51:29Z</time>
      </trkpt>
      <trkpt lat="42.38536" lon="0.14322">
        <ele>683.5</ele>
        <time>2017-07-02T10:51:31Z</time>
      </trkpt>
      <trkpt lat="42.38533" lon="0.14328">
        <ele>683.8</ele>
        <time>2017-07-02T10:51:33Z</time>
      </trkpt>
      <trkpt lat="42.38532" lon="0.14334">
        <ele>684</ele>
        <time>2017-07-02T10:51:35Z</time>
      </trkpt>
      <trkpt lat="42.38531" lon="0.1434">
        <ele>684.3</ele>
        <time>2017-07-02T10:51:37Z</time>
      </trkpt>
      <trkpt lat="42.3853" lon="0.14346">
        <ele>684.9</ele>
        <time>2017-07-02T10:51:39Z</time>
      </trkpt>
      <trkpt lat="42.38528" lon="0.14352">
        <ele>685.6</ele>
        <time>2017-07-02T10:51:41Z</time>
      </trkpt>
      <trkpt lat="42.38525" lon="0.14358">
        <ele>686.1</ele>
        <time>2017-07-02T10:51:43Z</time>
      </trkpt>
      <trkpt lat="42.38524" lon="0.14363">
        <ele>686.5</ele>
        <time>2017-07-02T10:51:45Z</time>
      </trkpt>
      <trkpt lat="42.38522" lon="0.14369">
        <ele>687</ele>
        <time>2017-07-02T10:51:47Z</time>
      </trkpt>
      <trkpt lat="42.38522" lon="0.14376">
        <ele>687.7</ele>
        <time>2017-07-02T10:51:49Z</time>
      </trkpt>
      <trkpt lat="42.38524" lon="0.14381">
        <ele>688</ele>
        <time>2017-07-02T10:51:51Z</time>
      </trkpt>
      <trkpt lat="42.38528" lon="0.14384">
        <ele>688.3</ele>
        <time>2017-07-02T10:51:53Z</time>
      </trkpt>
      <trkpt lat="42.38533" lon="0.14382">
        <ele>688.8</ele>
        <time>2017-07-02T10:51:55Z</time>
      </trkpt>
      <trkpt lat="42.38536" lon="0.1438">
        <ele>689.2</ele>
        <time>2017-07-02T10:51:56Z</time>
      </trkpt>
      <trkpt lat="42.38538" lon="0.14377">
        <ele>689.6</ele>
        <time>2017-07-02T10:51:57Z</time>
      </trkpt>
      <trkpt lat="42.3854" lon="0.14374">
        <ele>689.9</ele>
        <time>2017-07-02T10:51:58Z</time>
      </trkpt>
      <trkpt lat="42.38543" lon="0.1437">
        <ele>690.2</ele>
        <time>2017-07-02T10:52:00Z</time>
      </trkpt>
      <trkpt lat="42.38546" lon="0.14366">
        <ele>690.4</ele>
        <time>2017-07-02T10:52:02Z</time>
      </trkpt>
      <trkpt lat="42.3855" lon="0.14363">
        <ele>690.6</ele>
        <time>2017-07-02T10:52:04Z</time>
      </trkpt>
      <trkpt lat="42.38554" lon="0.14359">
        <ele>690.9</ele>
        <time>2017-07-02T10:52:06Z</time>
      </trkpt>
      <trkpt lat="42.38557" lon="0.14356">
        <ele>691.2</ele>
        <time>2017-07-02T10:52:08Z</time>
      </trkpt>
      <trkpt lat="42.3856" lon="0.14352">
        <ele>691.7</ele>
        <time>2017-07-02T10:52:10Z</time>
      </trkpt>
      <trkpt lat="42.38563" lon="0.14349">
        <ele>692.2</ele>
        <time>2017-07-02T10:52:12Z</time>
      </trkpt>
      <trkpt lat="42.38566" lon="0.14346">
        <ele>692.5</ele>
        <time>2017-07-02T10:52:14Z</time>
      </trkpt>
      <trkpt lat="42.3857" lon="0.14343">
        <ele>692.8</ele>
        <time>2017-07-02T10:52:16Z</time>
      </trkpt>
      <trkpt lat="42.38574" lon="0.1434">
        <ele>693.2</ele>
        <time>2017-07-02T10:52:18Z</time>
      </trkpt>
      <trkpt lat="42.38577" lon="0.14336">
        <ele>693.9</ele>
        <time>2017-07-02T10:52:20Z</time>
      </trkpt>
      <trkpt lat="42.38581" lon="0.14334">
        <ele>694.5</ele>
        <time>2017-07-02T10:52:22Z</time>
      </trkpt>
      <trkpt lat="42.38584" lon="0.14332">
        <ele>694.9</ele>
        <time>2017-07-02T10:52:24Z</time>
      </trkpt>
      <trkpt lat="42.38588" lon="0.1433">
        <ele>695.2</ele>
        <time>2017-07-02T10:52:26Z</time>
      </trkpt>
      <trkpt lat="42.38591" lon="0.14327">
        <ele>695.6</ele>
        <time>2017-07-02T10:52:28Z</time>
      </trkpt>
      <trkpt lat="42.38593" lon="0.14325">
        <ele>696.1</ele>
        <time>2017-07-02T10:52:30Z</time>
      </trkpt>
      <trkpt lat="42.38597" lon="0.14324">
        <ele>696.6</ele>
        <time>2017-07-02T10:52:32Z</time>
      </trkpt>
      <trkpt lat="42.386" lon="0.14323">
        <ele>697.2</ele>
        <time>2017-07-02T10:52:34Z</time>
      </trkpt>
      <trkpt lat="42.38603" lon="0.14321">
        <ele>697.5</ele>
        <time>2017-07-02T10:52:36Z</time>
      </trkpt>
      <trkpt lat="42.38606" lon="0.14319">
        <ele>697.8</ele>
        <time>2017-07-02T10:52:38Z</time>
      </trkpt>
      <trkpt lat="42.38609" lon="0.14318">
        <ele>698.2</ele>
        <time>2017-07-02T10:52:40Z</time>
      </trkpt>
      <trkpt lat="42.38612" lon="0.14317">
        <ele>698.7</ele>
        <time>2017-07-02T10:52:42Z</time>
      </trkpt>
      <trkpt lat="42.38616" lon="0.14315">
        <ele>699.2</ele>
        <time>2017-07-02T10:52:44Z</time>
      </trkpt>
      <trkpt lat="42.38618" lon="0.14312">
        <ele>699.5</ele>
        <time>2017-07-02T10:52:46Z</time>
      </trkpt>
      <trkpt lat="42.38621" lon="0.1431">
        <ele>699.7</ele>
        <time>2017-07-02T10:52:48Z</time>
      </trkpt>
      <trkpt lat="42.38624" lon="0.14307">
        <ele>700.2</ele>
        <time>2017-07-02T10:52:50Z</time>
      </trkpt>
      <trkpt lat="42.38627" lon="0.14304">
        <ele>700.7</ele>
        <time>2017-07-02T10:52:52Z</time>
      </trkpt>
      <trkpt lat="42.38631" lon="0.14302">
        <ele>701.2</ele>
        <time>2017-07-02T10:52:54Z</time>
      </trkpt>
      <trkpt lat="42.38634" lon="0.143">
        <ele>701.6</ele>
        <time>2017-07-02T10:52:56Z</time>
      </trkpt>
      <trkpt lat="42.38637" lon="0.14298">
        <ele>702</ele>
        <time>2017-07-02T10:52:58Z</time>
      </trkpt>
      <trkpt lat="42.38641" lon="0.14297">
        <ele>702.2</ele>
        <time>2017-07-02T10:53:00Z</time>
      </trkpt>
      <trkpt lat="42.38645" lon="0.14294">
        <ele>702.5</ele>
        <time>2017-07-02T10:53:02Z</time>
      </trkpt>
      <trkpt lat="42.38648" lon="0.14292">
        <ele>702.7</ele>
        <time>2017-07-02T10:53:04Z</time>
      </trkpt>
      <trkpt lat="42.38651" lon="0.14291">
        <ele>703.2</ele>
        <time>2017-07-02T10:53:06Z</time>
      </trkpt>
      <trkpt lat="42.38655" lon="0.14289">
        <ele>703.7</ele>
        <time>2017-07-02T10:53:08Z</time>
      </trkpt>
      <trkpt lat="42.38658" lon="0.14288">
        <ele>704</ele>
        <time>2017-07-02T10:53:10Z</time>
      </trkpt>
      <trkpt lat="42.38662" lon="0.14286">
        <ele>704.1</ele>
        <time>2017-07-02T10:53:12Z</time>
      </trkpt>
      <trkpt lat="42.38666" lon="0.14284">
        <ele>704.4</ele>
        <time>2017-07-02T10:53:14Z</time>
      </trkpt>
      <trkpt lat="42.38668" lon="0.14283">
        <ele>704.5</ele>
        <time>2017-07-02T10:53:15Z</time>
      </trkpt>
      <trkpt lat="42.38673" lon="0.14282">
        <ele>705</ele>
        <time>2017-07-02T10:53:17Z</time>
      </trkpt>
      <trkpt lat="42.38677" lon="0.1428">
        <ele>705.6</ele>
        <time>2017-07-02T10:53:19Z</time>
      </trkpt>
      <trkpt lat="42.38681" lon="0.14278">
        <ele>706.1</ele>
        <time>2017-07-02T10:53:21Z</time>
      </trkpt>
      <trkpt lat="42.38685" lon="0.14276">
        <ele>706.3</ele>
        <time>2017-07-02T10:53:23Z</time>
      </trkpt>
      <trkpt lat="42.38689" lon="0.14275">
        <ele>706.5</ele>
        <time>2017-07-02T10:53:25Z</time>
      </trkpt>
      <trkpt lat="42.38692" lon="0.14272">
        <ele>706.7</ele>
        <time>2017-07-02T10:53:27Z</time>
      </trkpt>
      <trkpt lat="42.38695" lon="0.1427">
        <ele>707.1</ele>
        <time>2017-07-02T10:53:29Z</time>
      </trkpt>
      <trkpt lat="42.38699" lon="0.14268">
        <ele>707.5</ele>
        <time>2017-07-02T10:53:31Z</time>
      </trkpt>
      <trkpt lat="42.38702" lon="0.14266">
        <ele>707.8</ele>
        <time>2017-07-02T10:53:33Z</time>
      </trkpt>
      <trkpt lat="42.38705" lon="0.14264">
        <ele>708.1</ele>
        <time>2017-07-02T10:53:35Z</time>
      </trkpt>
      <trkpt lat="42.38708" lon="0.14262">
        <ele>708.3</ele>
        <time>2017-07-02T10:53:37Z</time>
      </trkpt>
      <trkpt lat="42.38712" lon="0.14259">
        <ele>708.4</ele>
        <time>2017-07-02T10:53:39Z</time>
      </trkpt>
      <trkpt lat="42.38715" lon="0.14257">
        <ele>708.6</ele>
        <time>2017-07-02T10:53:41Z</time>
      </trkpt>
      <trkpt lat="42.38719" lon="0.14254">
        <ele>708.7</ele>
        <time>2017-07-02T10:53:43Z</time>
      </trkpt>
      <trkpt lat="42.38721" lon="0.14251">
        <ele>708.8</ele>
        <time>2017-07-02T10:53:45Z</time>
      </trkpt>
      <trkpt lat="42.38724" lon="0.14247">
        <ele>708.9</ele>
        <time>2017-07-02T10:53:47Z</time>
      </trkpt>
      <trkpt lat="42.38726" lon="0.14243">
        <ele>709</ele>
        <time>2017-07-02T10:53:49Z</time>
      </trkpt>
      <trkpt lat="42.38729" lon="0.14239">
        <ele>709.2</ele>
        <time>2017-07-02T10:53:51Z</time>
      </trkpt>
      <trkpt lat="42.3873" lon="0.14234">
        <ele>709.5</ele>
        <time>2017-07-02T10:53:53Z</time>
      </trkpt>
      <trkpt lat="42.38732" lon="0.14229">
        <ele>709.9</ele>
        <time>2017-07-02T10:53:55Z</time>
      </trkpt>
      <trkpt lat="42.38734" lon="0.14224">
        <ele>710.3</ele>
        <time>2017-07-02T10:53:57Z</time>
      </trkpt>
      <trkpt lat="42.38736" lon="0.14219">
        <ele>710.6</ele>
        <time>2017-07-02T10:53:59Z</time>
      </trkpt>
      <trkpt lat="42.38739" lon="0.14213">
        <ele>710.8</ele>
        <time>2017-07-02T10:54:01Z</time>
      </trkpt>
      <trkpt lat="42.3874" lon="0.14208">
        <ele>711</ele>
        <time>2017-07-02T10:54:03Z</time>
      </trkpt>
      <trkpt lat="42.38742" lon="0.14204">
        <ele>711.1</ele>
        <time>2017-07-02T10:54:05Z</time>
      </trkpt>
      <trkpt lat="42.38744" lon="0.142">
        <ele>711.2</ele>
        <time>2017-07-02T10:54:07Z</time>
      </trkpt>
      <trkpt lat="42.38746" lon="0.14197">
        <ele>711.4</ele>
        <time>2017-07-02T10:54:09Z</time>
      </trkpt>
      <trkpt lat="42.38748" lon="0.14193">
        <ele>711.7</ele>
        <time>2017-07-02T10:54:11Z</time>
      </trkpt>
      <trkpt lat="42.38751" lon="0.14189">
        <ele>712</ele>
        <time>2017-07-02T10:54:13Z</time>
      </trkpt>
      <trkpt lat="42.38754" lon="0.14185">
        <ele>712.1</ele>
        <time>2017-07-02T10:54:15Z</time>
      </trkpt>
      <trkpt lat="42.38757" lon="0.14181">
        <ele>712.2</ele>
        <time>2017-07-02T10:54:17Z</time>
      </trkpt>
      <trkpt lat="42.3876" lon="0.14177">
        <ele>712.3</ele>
        <time>2017-07-02T10:54:19Z</time>
      </trkpt>
      <trkpt lat="42.38763" lon="0.14172">
        <ele>712.4</ele>
        <time>2017-07-02T10:54:21Z</time>
      </trkpt>
      <trkpt lat="42.38766" lon="0.14168">
        <ele>712.5</ele>
        <time>2017-07-02T10:54:23Z</time>
      </trkpt>
      <trkpt lat="42.38769" lon="0.14164">
        <ele>712.5</ele>
        <time>2017-07-02T10:54:25Z</time>
      </trkpt>
      <trkpt lat="42.38773" lon="0.14159">
        <ele>712.6</ele>
        <time>2017-07-02T10:54:27Z</time>
      </trkpt>
      <trkpt lat="42.38775" lon="0.14156">
        <ele>712.6</ele>
        <time>2017-07-02T10:54:28Z</time>
      </trkpt>
      <trkpt lat="42.38778" lon="0.14153">
        <ele>712.7</ele>
        <time>2017-07-02T10:54:29Z</time>
      </trkpt>
      <trkpt lat="42.38781" lon="0.1415">
        <ele>712.7</ele>
        <time>2017-07-02T10:54:30Z</time>
      </trkpt>
      <trkpt lat="42.38783" lon="0.14147">
        <ele>712.8</ele>
        <time>2017-07-02T10:54:31Z</time>
      </trkpt>
      <trkpt lat="42.38786" lon="0.14143">
        <ele>712.8</ele>
        <time>2017-07-02T10:54:32Z</time>
      </trkpt>
      <trkpt lat="42.38789" lon="0.14139">
        <ele>712.8</ele>
        <time>2017-07-02T10:54:33Z</time>
      </trkpt>
      <trkpt lat="42.38793" lon="0.14135">
        <ele>712.8</ele>
        <time>2017-07-02T10:54:34Z</time>
      </trkpt>
      <trkpt lat="42.38796" lon="0.14131">
        <ele>712.8</ele>
        <time>2017-07-02T10:54:35Z</time>
      </trkpt>
      <trkpt lat="42.38799" lon="0.14126">
        <ele>712.8</ele>
        <time>2017-07-02T10:54:36Z</time>
      </trkpt>
      <trkpt lat="42.38802" lon="0.14122">
        <ele>712.8</ele>
        <time>2017-07-02T10:54:37Z</time>
      </trkpt>
      <trkpt lat="42.38805" lon="0.14117">
        <ele>712.8</ele>
        <time>2017-07-02T10:54:38Z</time>
      </trkpt>
      <trkpt lat="42.38809" lon="0.14111">
        <ele>712.7</ele>
        <time>2017-07-02T10:54:39Z</time>
      </trkpt>
      <trkpt lat="42.38812" lon="0.14106">
        <ele>712.7</ele>
        <time>2017-07-02T10:54:40Z</time>
      </trkpt>
      <trkpt lat="42.38816" lon="0.14101">
        <ele>712.6</ele>
        <time>2017-07-02T10:54:41Z</time>
      </trkpt>
      <trkpt lat="42.3882" lon="0.14096">
        <ele>712.5</ele>
        <time>2017-07-02T10:54:42Z</time>
      </trkpt>
      <trkpt lat="42.38823" lon="0.14092">
        <ele>712.3</ele>
        <time>2017-07-02T10:54:43Z</time>
      </trkpt>
      <trkpt lat="42.38827" lon="0.14088">
        <ele>712.1</ele>
        <time>2017-07-02T10:54:44Z</time>
      </trkpt>
      <trkpt lat="42.38831" lon="0.14085">
        <ele>711.9</ele>
        <time>2017-07-02T10:54:45Z</time>
      </trkpt>
      <trkpt lat="42.38834" lon="0.14082">
        <ele>711.9</ele>
        <time>2017-07-02T10:54:46Z</time>
      </trkpt>
      <trkpt lat="42.38837" lon="0.1408">
        <ele>711.9</ele>
        <time>2017-07-02T10:54:47Z</time>
      </trkpt>
      <trkpt lat="42.3884" lon="0.14077">
        <ele>711.9</ele>
        <time>2017-07-02T10:54:48Z</time>
      </trkpt>
      <trkpt lat="42.38842" lon="0.14074">
        <ele>711.9</ele>
        <time>2017-07-02T10:54:49Z</time>
      </trkpt>
      <trkpt lat="42.38845" lon="0.14072">
        <ele>711.9</ele>
        <time>2017-07-02T10:54:50Z</time>
      </trkpt>
      <trkpt lat="42.38848" lon="0.14069">
        <ele>712</ele>
        <time>2017-07-02T10:54:51Z</time>
      </trkpt>
      <trkpt lat="42.3885" lon="0.14067">
        <ele>712.2</ele>
        <time>2017-07-02T10:54:52Z</time>
      </trkpt>
      <trkpt lat="42.38852" lon="0.14065">
        <ele>712.5</ele>
        <time>2017-07-02T10:54:53Z</time>
      </trkpt>
      <trkpt lat="42.38856" lon="0.1406">
        <ele>713.1</ele>
        <time>2017-07-02T10:54:55Z</time>
      </trkpt>
      <trkpt lat="42.38858" lon="0.14058">
        <ele>713.3</ele>
        <time>2017-07-02T10:54:56Z</time>
      </trkpt>
      <trkpt lat="42.38861" lon="0.14055">
        <ele>713.5</ele>
        <time>2017-07-02T10:54:57Z</time>
      </trkpt>
      <trkpt lat="42.38863" lon="0.14053">
        <ele>713.7</ele>
        <time>2017-07-02T10:54:58Z</time>
      </trkpt>
      <trkpt lat="42.38865" lon="0.1405">
        <ele>713.9</ele>
        <time>2017-07-02T10:54:59Z</time>
      </trkpt>
      <trkpt lat="42.38868" lon="0.14048">
        <ele>714.1</ele>
        <time>2017-07-02T10:55:00Z</time>
      </trkpt>
      <trkpt lat="42.3887" lon="0.14045">
        <ele>714.2</ele>
        <time>2017-07-02T10:55:01Z</time>
      </trkpt>
      <trkpt lat="42.38873" lon="0.14043">
        <ele>714.5</ele>
        <time>2017-07-02T10:55:02Z</time>
      </trkpt>
      <trkpt lat="42.38875" lon="0.1404">
        <ele>714.9</ele>
        <time>2017-07-02T10:55:03Z</time>
      </trkpt>
      <trkpt lat="42.38878" lon="0.14038">
        <ele>715.3</ele>
        <time>2017-07-02T10:55:04Z</time>
      </trkpt>
      <trkpt lat="42.38881" lon="0.14035">
        <ele>715.7</ele>
        <time>2017-07-02T10:55:05Z</time>
      </trkpt>
      <trkpt lat="42.38883" lon="0.14033">
        <ele>715.8</ele>
        <time>2017-07-02T10:55:06Z</time>
      </trkpt>
      <trkpt lat="42.38885" lon="0.1403">
        <ele>716</ele>
        <time>2017-07-02T10:55:07Z</time>
      </trkpt>
      <trkpt lat="42.38888" lon="0.14027">
        <ele>716.2</ele>
        <time>2017-07-02T10:55:08Z</time>
      </trkpt>
      <trkpt lat="42.3889" lon="0.14024">
        <ele>716.3</ele>
        <time>2017-07-02T10:55:09Z</time>
      </trkpt>
      <trkpt lat="42.38892" lon="0.14021">
        <ele>716.7</ele>
        <time>2017-07-02T10:55:10Z</time>
      </trkpt>
      <trkpt lat="42.38894" lon="0.14018">
        <ele>717.1</ele>
        <time>2017-07-02T10:55:11Z</time>
      </trkpt>
      <trkpt lat="42.38896" lon="0.14015">
        <ele>717.4</ele>
        <time>2017-07-02T10:55:12Z</time>
      </trkpt>
      <trkpt lat="42.38898" lon="0.14013">
        <ele>717.7</ele>
        <time>2017-07-02T10:55:13Z</time>
      </trkpt>
      <trkpt lat="42.38901" lon="0.1401">
        <ele>717.8</ele>
        <time>2017-07-02T10:55:14Z</time>
      </trkpt>
      <trkpt lat="42.38903" lon="0.14007">
        <ele>718</ele>
        <time>2017-07-02T10:55:15Z</time>
      </trkpt>
      <trkpt lat="42.38906" lon="0.14005">
        <ele>718.2</ele>
        <time>2017-07-02T10:55:16Z</time>
      </trkpt>
      <trkpt lat="42.38909" lon="0.14">
        <ele>718.5</ele>
        <time>2017-07-02T10:55:18Z</time>
      </trkpt>
      <trkpt lat="42.38912" lon="0.13996">
        <ele>719</ele>
        <time>2017-07-02T10:55:20Z</time>
      </trkpt>
      <trkpt lat="42.38915" lon="0.13991">
        <ele>719.4</ele>
        <time>2017-07-02T10:55:22Z</time>
      </trkpt>
      <trkpt lat="42.38918" lon="0.13988">
        <ele>719.7</ele>
        <time>2017-07-02T10:55:24Z</time>
      </trkpt>
      <trkpt lat="42.38921" lon="0.13984">
        <ele>719.9</ele>
        <time>2017-07-02T10:55:26Z</time>
      </trkpt>
      <trkpt lat="42.38923" lon="0.13981">
        <ele>720</ele>
        <time>2017-07-02T10:55:28Z</time>
      </trkpt>
      <trkpt lat="42.38927" lon="0.13976">
        <ele>720.1</ele>
        <time>2017-07-02T10:55:30Z</time>
      </trkpt>
      <trkpt lat="42.3893" lon="0.13972">
        <ele>720.2</ele>
        <time>2017-07-02T10:55:32Z</time>
      </trkpt>
      <trkpt lat="42.38933" lon="0.13967">
        <ele>720.3</ele>
        <time>2017-07-02T10:55:34Z</time>
      </trkpt>
      <trkpt lat="42.38936" lon="0.13961">
        <ele>720.4</ele>
        <time>2017-07-02T10:55:36Z</time>
      </trkpt>
      <trkpt lat="42.38938" lon="0.13955">
        <ele>720.5</ele>
        <time>2017-07-02T10:55:38Z</time>
      </trkpt>
      <trkpt lat="42.38941" lon="0.1395">
        <ele>720.6</ele>
        <time>2017-07-02T10:55:40Z</time>
      </trkpt>
      <trkpt lat="42.38943" lon="0.13944">
        <ele>720.7</ele>
        <time>2017-07-02T10:55:42Z</time>
      </trkpt>
      <trkpt lat="42.38945" lon="0.13941">
        <ele>720.9</ele>
        <time>2017-07-02T10:55:43Z</time>
      </trkpt>
      <trkpt lat="42.38948" lon="0.13935">
        <ele>721.4</ele>
        <time>2017-07-02T10:55:45Z</time>
      </trkpt>
      <trkpt lat="42.3895" lon="0.13929">
        <ele>722</ele>
        <time>2017-07-02T10:55:47Z</time>
      </trkpt>
      <trkpt lat="42.38953" lon="0.13923">
        <ele>722.4</ele>
        <time>2017-07-02T10:55:49Z</time>
      </trkpt>
      <trkpt lat="42.38955" lon="0.13918">
        <ele>722.6</ele>
        <time>2017-07-02T10:55:51Z</time>
      </trkpt>
      <trkpt lat="42.38957" lon="0.13912">
        <ele>722.9</ele>
        <time>2017-07-02T10:55:53Z</time>
      </trkpt>
      <trkpt lat="42.38959" lon="0.13908">
        <ele>723.1</ele>
        <time>2017-07-02T10:55:55Z</time>
      </trkpt>
      <trkpt lat="42.38961" lon="0.13904">
        <ele>723.4</ele>
        <time>2017-07-02T10:55:57Z</time>
      </trkpt>
      <trkpt lat="42.38963" lon="0.13899">
        <ele>723.9</ele>
        <time>2017-07-02T10:55:59Z</time>
      </trkpt>
      <trkpt lat="42.38966" lon="0.13895">
        <ele>724.5</ele>
        <time>2017-07-02T10:56:01Z</time>
      </trkpt>
      <trkpt lat="42.38968" lon="0.1389">
        <ele>724.9</ele>
        <time>2017-07-02T10:56:03Z</time>
      </trkpt>
      <trkpt lat="42.3897" lon="0.13884">
        <ele>725.3</ele>
        <time>2017-07-02T10:56:05Z</time>
      </trkpt>
      <trkpt lat="42.38972" lon="0.13879">
        <ele>725.8</ele>
        <time>2017-07-02T10:56:07Z</time>
      </trkpt>
      <trkpt lat="42.38974" lon="0.13875">
        <ele>726.4</ele>
        <time>2017-07-02T10:56:09Z</time>
      </trkpt>
      <trkpt lat="42.38976" lon="0.13871">
        <ele>726.8</ele>
        <time>2017-07-02T10:56:11Z</time>
      </trkpt>
      <trkpt lat="42.38977" lon="0.13868">
        <ele>727.1</ele>
        <time>2017-07-02T10:56:13Z</time>
      </trkpt>
      <trkpt lat="42.38979" lon="0.13864">
        <ele>727.7</ele>
        <time>2017-07-02T10:56:15Z</time>
      </trkpt>
      <trkpt lat="42.38981" lon="0.1386">
        <ele>728.3</ele>
        <time>2017-07-02T10:56:17Z</time>
      </trkpt>
      <trkpt lat="42.38982" lon="0.13856">
        <ele>728.9</ele>
        <time>2017-07-02T10:56:19Z</time>
      </trkpt>
      <trkpt lat="42.38984" lon="0.13852">
        <ele>729.4</ele>
        <time>2017-07-02T10:56:21Z</time>
      </trkpt>
      <trkpt lat="42.38985" lon="0.13848">
        <ele>729.7</ele>
        <time>2017-07-02T10:56:23Z</time>
      </trkpt>
      <trkpt lat="42.38987" lon="0.13844">
        <ele>730.2</ele>
        <time>2017-07-02T10:56:25Z</time>
      </trkpt>
      <trkpt lat="42.38989" lon="0.1384">
        <ele>730.7</ele>
        <time>2017-07-02T10:56:27Z</time>
      </trkpt>
      <trkpt lat="42.38991" lon="0.13836">
        <ele>731.3</ele>
        <time>2017-07-02T10:56:29Z</time>
      </trkpt>
      <trkpt lat="42.38992" lon="0.13832">
        <ele>731.5</ele>
        <time>2017-07-02T10:56:31Z</time>
      </trkpt>
      <trkpt lat="42.38993" lon="0.13827">
        <ele>731.8</ele>
        <time>2017-07-02T10:56:33Z</time>
      </trkpt>
      <trkpt lat="42.38994" lon="0.13822">
        <ele>732.1</ele>
        <time>2017-07-02T10:56:35Z</time>
      </trkpt>
      <trkpt lat="42.38996" lon="0.13818">
        <ele>732.7</ele>
        <time>2017-07-02T10:56:37Z</time>
      </trkpt>
      <trkpt lat="42.38997" lon="0.13814">
        <ele>733.3</ele>
        <time>2017-07-02T10:56:39Z</time>
      </trkpt>
      <trkpt lat="42.38999" lon="0.13809">
        <ele>733.9</ele>
        <time>2017-07-02T10:56:41Z</time>
      </trkpt>
      <trkpt lat="42.39001" lon="0.13805">
        <ele>734.2</ele>
        <time>2017-07-02T10:56:43Z</time>
      </trkpt>
      <trkpt lat="42.39003" lon="0.13801">
        <ele>734.6</ele>
        <time>2017-07-02T10:56:45Z</time>
      </trkpt>
      <trkpt lat="42.39007" lon="0.13797">
        <ele>735.1</ele>
        <time>2017-07-02T10:56:47Z</time>
      </trkpt>
      <trkpt lat="42.39009" lon="0.13793">
        <ele>735.6</ele>
        <time>2017-07-02T10:56:49Z</time>
      </trkpt>
      <trkpt lat="42.39011" lon="0.13789">
        <ele>735.8</ele>
        <time>2017-07-02T10:56:51Z</time>
      </trkpt>
      <trkpt lat="42.39012" lon="0.13786">
        <ele>736</ele>
        <time>2017-07-02T10:56:53Z</time>
      </trkpt>
      <trkpt lat="42.39014" lon="0.13782">
        <ele>736.2</ele>
        <time>2017-07-02T10:56:55Z</time>
      </trkpt>
      <trkpt lat="42.39016" lon="0.13778">
        <ele>736.3</ele>
        <time>2017-07-02T10:56:57Z</time>
      </trkpt>
      <trkpt lat="42.39018" lon="0.13774">
        <ele>736.6</ele>
        <time>2017-07-02T10:56:59Z</time>
      </trkpt>
      <trkpt lat="42.39021" lon="0.1377">
        <ele>737</ele>
        <time>2017-07-02T10:57:01Z</time>
      </trkpt>
      <trkpt lat="42.39023" lon="0.13766">
        <ele>737.5</ele>
        <time>2017-07-02T10:57:03Z</time>
      </trkpt>
      <trkpt lat="42.39026" lon="0.13762">
        <ele>738</ele>
        <time>2017-07-02T10:57:05Z</time>
      </trkpt>
      <trkpt lat="42.39028" lon="0.13758">
        <ele>738.3</ele>
        <time>2017-07-02T10:57:07Z</time>
      </trkpt>
      <trkpt lat="42.3903" lon="0.13754">
        <ele>738.7</ele>
        <time>2017-07-02T10:57:09Z</time>
      </trkpt>
      <trkpt lat="42.39033" lon="0.1375">
        <ele>739.1</ele>
        <time>2017-07-02T10:57:11Z</time>
      </trkpt>
      <trkpt lat="42.39035" lon="0.13746">
        <ele>739.6</ele>
        <time>2017-07-02T10:57:13Z</time>
      </trkpt>
      <trkpt lat="42.39037" lon="0.13742">
        <ele>740.1</ele>
        <time>2017-07-02T10:57:15Z</time>
      </trkpt>
      <trkpt lat="42.39039" lon="0.13738">
        <ele>740.5</ele>
        <time>2017-07-02T10:57:17Z</time>
      </trkpt>
      <trkpt lat="42.39041" lon="0.13734">
        <ele>740.8</ele>
        <time>2017-07-02T10:57:19Z</time>
      </trkpt>
      <trkpt lat="42.39043" lon="0.13729">
        <ele>741.1</ele>
        <time>2017-07-02T10:57:21Z</time>
      </trkpt>
      <trkpt lat="42.39045" lon="0.13724">
        <ele>741.6</ele>
        <time>2017-07-02T10:57:23Z</time>
      </trkpt>
      <trkpt lat="42.39047" lon="0.13718">
        <ele>742.2</ele>
        <time>2017-07-02T10:57:25Z</time>
      </trkpt>
      <trkpt lat="42.39049" lon="0.13713">
        <ele>742.8</ele>
        <time>2017-07-02T10:57:27Z</time>
      </trkpt>
      <trkpt lat="42.39052" lon="0.13708">
        <ele>743.1</ele>
        <time>2017-07-02T10:57:29Z</time>
      </trkpt>
      <trkpt lat="42.39055" lon="0.13703">
        <ele>743.4</ele>
        <time>2017-07-02T10:57:31Z</time>
      </trkpt>
      <trkpt lat="42.39057" lon="0.13699">
        <ele>743.9</ele>
        <time>2017-07-02T10:57:33Z</time>
      </trkpt>
      <trkpt lat="42.3906" lon="0.13694">
        <ele>744.6</ele>
        <time>2017-07-02T10:57:35Z</time>
      </trkpt>
      <trkpt lat="42.39063" lon="0.1369">
        <ele>745.1</ele>
        <time>2017-07-02T10:57:37Z</time>
      </trkpt>
      <trkpt lat="42.39066" lon="0.13685">
        <ele>745.3</ele>
        <time>2017-07-02T10:57:39Z</time>
      </trkpt>
      <trkpt lat="42.39069" lon="0.1368">
        <ele>745.6</ele>
        <time>2017-07-02T10:57:41Z</time>
      </trkpt>
      <trkpt lat="42.39071" lon="0.13675">
        <ele>745.8</ele>
        <time>2017-07-02T10:57:43Z</time>
      </trkpt>
      <trkpt lat="42.39073" lon="0.1367">
        <ele>746.3</ele>
        <time>2017-07-02T10:57:45Z</time>
      </trkpt>
      <trkpt lat="42.39076" lon="0.13665">
        <ele>746.7</ele>
        <time>2017-07-02T10:57:47Z</time>
      </trkpt>
      <trkpt lat="42.3908" lon="0.1366">
        <ele>746.8</ele>
        <time>2017-07-02T10:57:49Z</time>
      </trkpt>
      <trkpt lat="42.39083" lon="0.13654">
        <ele>746.9</ele>
        <time>2017-07-02T10:57:51Z</time>
      </trkpt>
      <trkpt lat="42.39086" lon="0.1365">
        <ele>747</ele>
        <time>2017-07-02T10:57:53Z</time>
      </trkpt>
      <trkpt lat="42.3909" lon="0.13646">
        <ele>747.1</ele>
        <time>2017-07-02T10:57:55Z</time>
      </trkpt>
      <trkpt lat="42.39094" lon="0.13642">
        <ele>747.1</ele>
        <time>2017-07-02T10:57:57Z</time>
      </trkpt>
      <trkpt lat="42.39097" lon="0.13639">
        <ele>747.2</ele>
        <time>2017-07-02T10:57:59Z</time>
      </trkpt>
      <trkpt lat="42.39101" lon="0.13635">
        <ele>747.2</ele>
        <time>2017-07-02T10:58:01Z</time>
      </trkpt>
      <trkpt lat="42.39106" lon="0.13631">
        <ele>747.2</ele>
        <time>2017-07-02T10:58:03Z</time>
      </trkpt>
      <trkpt lat="42.39108" lon="0.13628">
        <ele>747.3</ele>
        <time>2017-07-02T10:58:04Z</time>
      </trkpt>
      <trkpt lat="42.39111" lon="0.13625">
        <ele>747.3</ele>
        <time>2017-07-02T10:58:05Z</time>
      </trkpt>
      <trkpt lat="42.39114" lon="0.13623">
        <ele>747.3</ele>
        <time>2017-07-02T10:58:06Z</time>
      </trkpt>
      <trkpt lat="42.39117" lon="0.13621">
        <ele>747.3</ele>
        <time>2017-07-02T10:58:07Z</time>
      </trkpt>
      <trkpt lat="42.39119" lon="0.13618">
        <ele>747.3</ele>
        <time>2017-07-02T10:58:08Z</time>
      </trkpt>
      <trkpt lat="42.39122" lon="0.13616">
        <ele>747.4</ele>
        <time>2017-07-02T10:58:09Z</time>
      </trkpt>
      <trkpt lat="42.39124" lon="0.13614">
        <ele>747.4</ele>
        <time>2017-07-02T10:58:10Z</time>
      </trkpt>
      <trkpt lat="42.39127" lon="0.13612">
        <ele>747.4</ele>
        <time>2017-07-02T10:58:11Z</time>
      </trkpt>
      <trkpt lat="42.3913" lon="0.13609">
        <ele>747.4</ele>
        <time>2017-07-02T10:58:12Z</time>
      </trkpt>
      <trkpt lat="42.39133" lon="0.13607">
        <ele>747.4</ele>
        <time>2017-07-02T10:58:13Z</time>
      </trkpt>
      <trkpt lat="42.39136" lon="0.13605">
        <ele>747.5</ele>
        <time>2017-07-02T10:58:14Z</time>
      </trkpt>
      <trkpt lat="42.39139" lon="0.13603">
        <ele>747.5</ele>
        <time>2017-07-02T10:58:15Z</time>
      </trkpt>
      <trkpt lat="42.39143" lon="0.13601">
        <ele>747.5</ele>
        <time>2017-07-02T10:58:16Z</time>
      </trkpt>
      <trkpt lat="42.39146" lon="0.136">
        <ele>747.6</ele>
        <time>2017-07-02T10:58:17Z</time>
      </trkpt>
      <trkpt lat="42.3915" lon="0.13599">
        <ele>747.6</ele>
        <time>2017-07-02T10:58:18Z</time>
      </trkpt>
      <trkpt lat="42.39154" lon="0.13598">
        <ele>747.7</ele>
        <time>2017-07-02T10:58:19Z</time>
      </trkpt>
      <trkpt lat="42.39158" lon="0.13598">
        <ele>747.7</ele>
        <time>2017-07-02T10:58:20Z</time>
      </trkpt>
      <trkpt lat="42.39161" lon="0.13597">
        <ele>747.8</ele>
        <time>2017-07-02T10:58:21Z</time>
      </trkpt>
      <trkpt lat="42.39166" lon="0.13596">
        <ele>747.9</ele>
        <time>2017-07-02T10:58:23Z</time>
      </trkpt>
      <trkpt lat="42.39169" lon="0.13595">
        <ele>748</ele>
        <time>2017-07-02T10:58:24Z</time>
      </trkpt>
      <trkpt lat="42.39171" lon="0.13595">
        <ele>748.1</ele>
        <time>2017-07-02T10:58:25Z</time>
      </trkpt>
      <trkpt lat="42.39176" lon="0.13594">
        <ele>748.7</ele>
        <time>2017-07-02T10:58:27Z</time>
      </trkpt>
      <trkpt lat="42.39181" lon="0.13593">
        <ele>749.5</ele>
        <time>2017-07-02T10:58:29Z</time>
      </trkpt>
      <trkpt lat="42.39186" lon="0.13592">
        <ele>750.1</ele>
        <time>2017-07-02T10:58:31Z</time>
      </trkpt>
      <trkpt lat="42.39191" lon="0.13591">
        <ele>750.7</ele>
        <time>2017-07-02T10:58:33Z</time>
      </trkpt>
      <trkpt lat="42.39196" lon="0.1359">
        <ele>751.7</ele>
        <time>2017-07-02T10:58:35Z</time>
      </trkpt>
      <trkpt lat="42.39201" lon="0.13589">
        <ele>752.4</ele>
        <time>2017-07-02T10:58:37Z</time>
      </trkpt>
      <trkpt lat="42.39203" lon="0.13589">
        <ele>752.8</ele>
        <time>2017-07-02T10:58:38Z</time>
      </trkpt>
      <trkpt lat="42.39207" lon="0.13588">
        <ele>753.3</ele>
        <time>2017-07-02T10:58:39Z</time>
      </trkpt>
      <trkpt lat="42.3921" lon="0.13587">
        <ele>754</ele>
        <time>2017-07-02T10:58:40Z</time>
      </trkpt>
      <trkpt lat="42.39213" lon="0.13586">
        <ele>754.4</ele>
        <time>2017-07-02T10:58:41Z</time>
      </trkpt>
      <trkpt lat="42.39216" lon="0.13584">
        <ele>754.7</ele>
        <time>2017-07-02T10:58:42Z</time>
      </trkpt>
      <trkpt lat="42.39218" lon="0.13583">
        <ele>755.1</ele>
        <time>2017-07-02T10:58:43Z</time>
      </trkpt>
      <trkpt lat="42.39221" lon="0.13582">
        <ele>755.5</ele>
        <time>2017-07-02T10:58:44Z</time>
      </trkpt>
      <trkpt lat="42.39223" lon="0.1358">
        <ele>755.8</ele>
        <time>2017-07-02T10:58:45Z</time>
      </trkpt>
      <trkpt lat="42.39226" lon="0.13579">
        <ele>756.2</ele>
        <time>2017-07-02T10:58:46Z</time>
      </trkpt>
      <trkpt lat="42.39229" lon="0.13577">
        <ele>756.4</ele>
        <time>2017-07-02T10:58:47Z</time>
      </trkpt>
      <trkpt lat="42.39231" lon="0.13575">
        <ele>756.5</ele>
        <time>2017-07-02T10:58:48Z</time>
      </trkpt>
      <trkpt lat="42.39233" lon="0.13572">
        <ele>756.6</ele>
        <time>2017-07-02T10:58:49Z</time>
      </trkpt>
      <trkpt lat="42.39235" lon="0.13569">
        <ele>756.7</ele>
        <time>2017-07-02T10:58:50Z</time>
      </trkpt>
      <trkpt lat="42.39238" lon="0.13566">
        <ele>756.9</ele>
        <time>2017-07-02T10:58:51Z</time>
      </trkpt>
      <trkpt lat="42.3924" lon="0.13563">
        <ele>757</ele>
        <time>2017-07-02T10:58:52Z</time>
      </trkpt>
      <trkpt lat="42.39242" lon="0.13559">
        <ele>757.3</ele>
        <time>2017-07-02T10:58:53Z</time>
      </trkpt>
      <trkpt lat="42.39244" lon="0.13556">
        <ele>757.6</ele>
        <time>2017-07-02T10:58:54Z</time>
      </trkpt>
      <trkpt lat="42.39246" lon="0.13553">
        <ele>757.9</ele>
        <time>2017-07-02T10:58:55Z</time>
      </trkpt>
      <trkpt lat="42.39248" lon="0.13548">
        <ele>758.3</ele>
        <time>2017-07-02T10:58:57Z</time>
      </trkpt>
      <trkpt lat="42.39251" lon="0.13542">
        <ele>758.5</ele>
        <time>2017-07-02T10:58:59Z</time>
      </trkpt>
      <trkpt lat="42.39255" lon="0.13536">
        <ele>758.6</ele>
        <time>2017-07-02T10:59:01Z</time>
      </trkpt>
      <trkpt lat="42.39256" lon="0.13532">
        <ele>758.6</ele>
        <time>2017-07-02T10:59:02Z</time>
      </trkpt>
      <trkpt lat="42.39258" lon="0.13529">
        <ele>758.7</ele>
        <time>2017-07-02T10:59:03Z</time>
      </trkpt>
      <trkpt lat="42.3926" lon="0.13525">
        <ele>758.7</ele>
        <time>2017-07-02T10:59:04Z</time>
      </trkpt>
      <trkpt lat="42.39262" lon="0.13521">
        <ele>758.7</ele>
        <time>2017-07-02T10:59:05Z</time>
      </trkpt>
      <trkpt lat="42.39263" lon="0.13517">
        <ele>758.7</ele>
        <time>2017-07-02T10:59:06Z</time>
      </trkpt>
      <trkpt lat="42.39265" lon="0.13513">
        <ele>758.7</ele>
        <time>2017-07-02T10:59:07Z</time>
      </trkpt>
      <trkpt lat="42.39267" lon="0.13509">
        <ele>758.7</ele>
        <time>2017-07-02T10:59:08Z</time>
      </trkpt>
      <trkpt lat="42.39269" lon="0.13504">
        <ele>758.7</ele>
        <time>2017-07-02T10:59:09Z</time>
      </trkpt>
      <trkpt lat="42.3927" lon="0.135">
        <ele>758.7</ele>
        <time>2017-07-02T10:59:10Z</time>
      </trkpt>
      <trkpt lat="42.39272" lon="0.13496">
        <ele>758.7</ele>
        <time>2017-07-02T10:59:11Z</time>
      </trkpt>
      <trkpt lat="42.39274" lon="0.13492">
        <ele>758.7</ele>
        <time>2017-07-02T10:59:12Z</time>
      </trkpt>
      <trkpt lat="42.39277" lon="0.13488">
        <ele>758.7</ele>
        <time>2017-07-02T10:59:13Z</time>
      </trkpt>
      <trkpt lat="42.3928" lon="0.13484">
        <ele>758.7</ele>
        <time>2017-07-02T10:59:14Z</time>
      </trkpt>
      <trkpt lat="42.39283" lon="0.1348">
        <ele>758.6</ele>
        <time>2017-07-02T10:59:15Z</time>
      </trkpt>
      <trkpt lat="42.39288" lon="0.13474">
        <ele>758.5</ele>
        <time>2017-07-02T10:59:16Z</time>
      </trkpt>
      <trkpt lat="42.39292" lon="0.13468">
        <ele>758.4</ele>
        <time>2017-07-02T10:59:17Z</time>
      </trkpt>
      <trkpt lat="42.39297" lon="0.13462">
        <ele>758.1</ele>
        <time>2017-07-02T10:59:18Z</time>
      </trkpt>
      <trkpt lat="42.39302" lon="0.13455">
        <ele>757.7</ele>
        <time>2017-07-02T10:59:19Z</time>
      </trkpt>
      <trkpt lat="42.39307" lon="0.13447">
        <ele>757.2</ele>
        <time>2017-07-02T10:59:20Z</time>
      </trkpt>
      <trkpt lat="42.39312" lon="0.13439">
        <ele>756.7</ele>
        <time>2017-07-02T10:59:21Z</time>
      </trkpt>
      <trkpt lat="42.39317" lon="0.1343">
        <ele>756</ele>
        <time>2017-07-02T10:59:22Z</time>
      </trkpt>
      <trkpt lat="42.39319" lon="0.13422">
        <ele>755.5</ele>
        <time>2017-07-02T10:59:23Z</time>
      </trkpt>
      <trkpt lat="42.39317" lon="0.13414">
        <ele>755</ele>
        <time>2017-07-02T10:59:24Z</time>
      </trkpt>
      <trkpt lat="42.39318" lon="0.13406">
        <ele>754.4</ele>
        <time>2017-07-02T10:59:25Z</time>
      </trkpt>
      <trkpt lat="42.39319" lon="0.13399">
        <ele>753.9</ele>
        <time>2017-07-02T10:59:26Z</time>
      </trkpt>
      <trkpt lat="42.3932" lon="0.1339">
        <ele>753.3</ele>
        <time>2017-07-02T10:59:27Z</time>
      </trkpt>
      <trkpt lat="42.39321" lon="0.1338">
        <ele>752.6</ele>
        <time>2017-07-02T10:59:28Z</time>
      </trkpt>
      <trkpt lat="42.39321" lon="0.1337">
        <ele>752</ele>
        <time>2017-07-02T10:59:29Z</time>
      </trkpt>
      <trkpt lat="42.3932" lon="0.1336">
        <ele>751.5</ele>
        <time>2017-07-02T10:59:30Z</time>
      </trkpt>
      <trkpt lat="42.39319" lon="0.1335">
        <ele>751</ele>
        <time>2017-07-02T10:59:31Z</time>
      </trkpt>
      <trkpt lat="42.3932" lon="0.1334">
        <ele>750.6</ele>
        <time>2017-07-02T10:59:32Z</time>
      </trkpt>
      <trkpt lat="42.39321" lon="0.13329">
        <ele>750.1</ele>
        <time>2017-07-02T10:59:33Z</time>
      </trkpt>
      <trkpt lat="42.39321" lon="0.13319">
        <ele>749.7</ele>
        <time>2017-07-02T10:59:34Z</time>
      </trkpt>
      <trkpt lat="42.39322" lon="0.13311">
        <ele>749.3</ele>
        <time>2017-07-02T10:59:35Z</time>
      </trkpt>
      <trkpt lat="42.39323" lon="0.13303">
        <ele>748.9</ele>
        <time>2017-07-02T10:59:36Z</time>
      </trkpt>
      <trkpt lat="42.39324" lon="0.13296">
        <ele>748.6</ele>
        <time>2017-07-02T10:59:37Z</time>
      </trkpt>
      <trkpt lat="42.39325" lon="0.13288">
        <ele>748.2</ele>
        <time>2017-07-02T10:59:38Z</time>
      </trkpt>
      <trkpt lat="42.39327" lon="0.13283">
        <ele>747.9</ele>
        <time>2017-07-02T10:59:39Z</time>
      </trkpt>
      <trkpt lat="42.3933" lon="0.13277">
        <ele>747.5</ele>
        <time>2017-07-02T10:59:40Z</time>
      </trkpt>
      <trkpt lat="42.39334" lon="0.1327">
        <ele>747</ele>
        <time>2017-07-02T10:59:41Z</time>
      </trkpt>
      <trkpt lat="42.39338" lon="0.13265">
        <ele>746.5</ele>
        <time>2017-07-02T10:59:42Z</time>
      </trkpt>
      <trkpt lat="42.39342" lon="0.1326">
        <ele>746.1</ele>
        <time>2017-07-02T10:59:43Z</time>
      </trkpt>
      <trkpt lat="42.39345" lon="0.13254">
        <ele>745.6</ele>
        <time>2017-07-02T10:59:44Z</time>
      </trkpt>
      <trkpt lat="42.39348" lon="0.13246">
        <ele>745</ele>
        <time>2017-07-02T10:59:45Z</time>
      </trkpt>
      <trkpt lat="42.39349" lon="0.13237">
        <ele>744.5</ele>
        <time>2017-07-02T10:59:46Z</time>
      </trkpt>
      <trkpt lat="42.39352" lon="0.13229">
        <ele>743.9</ele>
        <time>2017-07-02T10:59:47Z</time>
      </trkpt>
      <trkpt lat="42.39356" lon="0.13222">
        <ele>743.3</ele>
        <time>2017-07-02T10:59:48Z</time>
      </trkpt>
      <trkpt lat="42.39361" lon="0.13216">
        <ele>742.8</ele>
        <time>2017-07-02T10:59:49Z</time>
      </trkpt>
      <trkpt lat="42.39365" lon="0.13209">
        <ele>742.3</ele>
        <time>2017-07-02T10:59:50Z</time>
      </trkpt>
      <trkpt lat="42.39371" lon="0.13203">
        <ele>741.8</ele>
        <time>2017-07-02T10:59:51Z</time>
      </trkpt>
      <trkpt lat="42.39375" lon="0.13197">
        <ele>741.3</ele>
        <time>2017-07-02T10:59:52Z</time>
      </trkpt>
      <trkpt lat="42.39381" lon="0.13191">
        <ele>740.8</ele>
        <time>2017-07-02T10:59:53Z</time>
      </trkpt>
      <trkpt lat="42.39385" lon="0.13185">
        <ele>740.3</ele>
        <time>2017-07-02T10:59:54Z</time>
      </trkpt>
      <trkpt lat="42.39391" lon="0.1318">
        <ele>739.8</ele>
        <time>2017-07-02T10:59:55Z</time>
      </trkpt>
      <trkpt lat="42.39396" lon="0.13176">
        <ele>739.3</ele>
        <time>2017-07-02T10:59:56Z</time>
      </trkpt>
      <trkpt lat="42.39401" lon="0.1317">
        <ele>738.8</ele>
        <time>2017-07-02T10:59:57Z</time>
      </trkpt>
      <trkpt lat="42.39411" lon="0.13165">
        <ele>738</ele>
        <time>2017-07-02T10:59:58Z</time>
      </trkpt>
      <trkpt lat="42.39409" lon="0.13158">
        <ele>737.5</ele>
        <time>2017-07-02T10:59:59Z</time>
      </trkpt>
      <trkpt lat="42.3941" lon="0.13152">
        <ele>737.1</ele>
        <time>2017-07-02T11:00:00Z</time>
      </trkpt>
      <trkpt lat="42.3941" lon="0.13145">
        <ele>736.8</ele>
        <time>2017-07-02T11:00:01Z</time>
      </trkpt>
      <trkpt lat="42.39412" lon="0.13139">
        <ele>736.4</ele>
        <time>2017-07-02T11:00:02Z</time>
      </trkpt>
      <trkpt lat="42.39412" lon="0.13134">
        <ele>736.3</ele>
        <time>2017-07-02T11:00:03Z</time>
      </trkpt>
      <trkpt lat="42.39415" lon="0.13129">
        <ele>736.1</ele>
        <time>2017-07-02T11:00:04Z</time>
      </trkpt>
      <trkpt lat="42.39419" lon="0.13122">
        <ele>735.7</ele>
        <time>2017-07-02T11:00:05Z</time>
      </trkpt>
      <trkpt lat="42.39418" lon="0.13113">
        <ele>735.4</ele>
        <time>2017-07-02T11:00:06Z</time>
      </trkpt>
      <trkpt lat="42.39419" lon="0.13106">
        <ele>735.1</ele>
        <time>2017-07-02T11:00:07Z</time>
      </trkpt>
      <trkpt lat="42.39418" lon="0.13099">
        <ele>734.9</ele>
        <time>2017-07-02T11:00:08Z</time>
      </trkpt>
      <trkpt lat="42.39418" lon="0.13092">
        <ele>734.7</ele>
        <time>2017-07-02T11:00:09Z</time>
      </trkpt>
      <trkpt lat="42.39422" lon="0.13085">
        <ele>734.6</ele>
        <time>2017-07-02T11:00:10Z</time>
      </trkpt>
      <trkpt lat="42.39425" lon="0.13079">
        <ele>734.5</ele>
        <time>2017-07-02T11:00:11Z</time>
      </trkpt>
      <trkpt lat="42.39428" lon="0.13073">
        <ele>734.4</ele>
        <time>2017-07-02T11:00:12Z</time>
      </trkpt>
      <trkpt lat="42.39431" lon="0.13067">
        <ele>734.4</ele>
        <time>2017-07-02T11:00:13Z</time>
      </trkpt>
      <trkpt lat="42.39435" lon="0.13063">
        <ele>734.3</ele>
        <time>2017-07-02T11:00:14Z</time>
      </trkpt>
      <trkpt lat="42.39438" lon="0.13059">
        <ele>734.3</ele>
        <time>2017-07-02T11:00:15Z</time>
      </trkpt>
      <trkpt lat="42.39444" lon="0.13055">
        <ele>734.3</ele>
        <time>2017-07-02T11:00:16Z</time>
      </trkpt>
      <trkpt lat="42.39448" lon="0.13051">
        <ele>734.2</ele>
        <time>2017-07-02T11:00:17Z</time>
      </trkpt>
      <trkpt lat="42.39451" lon="0.13046">
        <ele>734.2</ele>
        <time>2017-07-02T11:00:18Z</time>
      </trkpt>
      <trkpt lat="42.39454" lon="0.13041">
        <ele>734.1</ele>
        <time>2017-07-02T11:00:19Z</time>
      </trkpt>
      <trkpt lat="42.39458" lon="0.13036">
        <ele>734</ele>
        <time>2017-07-02T11:00:20Z</time>
      </trkpt>
      <trkpt lat="42.39463" lon="0.13031">
        <ele>733.9</ele>
        <time>2017-07-02T11:00:21Z</time>
      </trkpt>
      <trkpt lat="42.39457" lon="0.13023">
        <ele>733.7</ele>
        <time>2017-07-02T11:00:22Z</time>
      </trkpt>
      <trkpt lat="42.3946" lon="0.13019">
        <ele>733.5</ele>
        <time>2017-07-02T11:00:23Z</time>
      </trkpt>
      <trkpt lat="42.39463" lon="0.1302">
        <ele>733.4</ele>
        <time>2017-07-02T11:00:24Z</time>
      </trkpt>
      <trkpt lat="42.39466" lon="0.13015">
        <ele>733.2</ele>
        <time>2017-07-02T11:00:25Z</time>
      </trkpt>
      <trkpt lat="42.39472" lon="0.13011">
        <ele>732.9</ele>
        <time>2017-07-02T11:00:26Z</time>
      </trkpt>
      <trkpt lat="42.39475" lon="0.13005">
        <ele>732.7</ele>
        <time>2017-07-02T11:00:27Z</time>
      </trkpt>
      <trkpt lat="42.39478" lon="0.13">
        <ele>732.6</ele>
        <time>2017-07-02T11:00:28Z</time>
      </trkpt>
      <trkpt lat="42.39481" lon="0.12996">
        <ele>732.5</ele>
        <time>2017-07-02T11:00:29Z</time>
      </trkpt>
      <trkpt lat="42.39484" lon="0.1299">
        <ele>732.4</ele>
        <time>2017-07-02T11:00:30Z</time>
      </trkpt>
      <trkpt lat="42.39486" lon="0.12983">
        <ele>732.4</ele>
        <time>2017-07-02T11:00:31Z</time>
      </trkpt>
      <trkpt lat="42.39489" lon="0.12976">
        <ele>732.3</ele>
        <time>2017-07-02T11:00:32Z</time>
      </trkpt>
      <trkpt lat="42.39491" lon="0.1297">
        <ele>732.3</ele>
        <time>2017-07-02T11:00:33Z</time>
      </trkpt>
      <trkpt lat="42.39495" lon="0.12965">
        <ele>732.3</ele>
        <time>2017-07-02T11:00:34Z</time>
      </trkpt>
      <trkpt lat="42.39496" lon="0.12958">
        <ele>732.3</ele>
        <time>2017-07-02T11:00:35Z</time>
      </trkpt>
      <trkpt lat="42.395" lon="0.12952">
        <ele>732.2</ele>
        <time>2017-07-02T11:00:36Z</time>
      </trkpt>
      <trkpt lat="42.39501" lon="0.12945">
        <ele>732.2</ele>
        <time>2017-07-02T11:00:37Z</time>
      </trkpt>
      <trkpt lat="42.39502" lon="0.1294">
        <ele>732.2</ele>
        <time>2017-07-02T11:00:38Z</time>
      </trkpt>
      <trkpt lat="42.39503" lon="0.12933">
        <ele>732.2</ele>
        <time>2017-07-02T11:00:39Z</time>
      </trkpt>
      <trkpt lat="42.39503" lon="0.12928">
        <ele>732.2</ele>
        <time>2017-07-02T11:00:40Z</time>
      </trkpt>
      <trkpt lat="42.39504" lon="0.12922">
        <ele>732.1</ele>
        <time>2017-07-02T11:00:41Z</time>
      </trkpt>
      <trkpt lat="42.39505" lon="0.12917">
        <ele>732.1</ele>
        <time>2017-07-02T11:00:42Z</time>
      </trkpt>
      <trkpt lat="42.39507" lon="0.12912">
        <ele>732.1</ele>
        <time>2017-07-02T11:00:43Z</time>
      </trkpt>
      <trkpt lat="42.39509" lon="0.12907">
        <ele>732</ele>
        <time>2017-07-02T11:00:44Z</time>
      </trkpt>
      <trkpt lat="42.39514" lon="0.12902">
        <ele>732</ele>
        <time>2017-07-02T11:00:45Z</time>
      </trkpt>
      <trkpt lat="42.39518" lon="0.12897">
        <ele>731.8</ele>
        <time>2017-07-02T11:00:46Z</time>
      </trkpt>
      <trkpt lat="42.3952" lon="0.12892">
        <ele>731.7</ele>
        <time>2017-07-02T11:00:47Z</time>
      </trkpt>
      <trkpt lat="42.39523" lon="0.12887">
        <ele>731.6</ele>
        <time>2017-07-02T11:00:48Z</time>
      </trkpt>
      <trkpt lat="42.39526" lon="0.12883">
        <ele>731.6</ele>
        <time>2017-07-02T11:00:49Z</time>
      </trkpt>
      <trkpt lat="42.39529" lon="0.12878">
        <ele>731.6</ele>
        <time>2017-07-02T11:00:50Z</time>
      </trkpt>
      <trkpt lat="42.39531" lon="0.12876">
        <ele>731.6</ele>
        <time>2017-07-02T11:00:51Z</time>
      </trkpt>
      <trkpt lat="42.39535" lon="0.12874">
        <ele>731.8</ele>
        <time>2017-07-02T11:00:52Z</time>
      </trkpt>
      <trkpt lat="42.39539" lon="0.1287">
        <ele>732.1</ele>
        <time>2017-07-02T11:00:54Z</time>
      </trkpt>
      <trkpt lat="42.39541" lon="0.12868">
        <ele>732.3</ele>
        <time>2017-07-02T11:00:55Z</time>
      </trkpt>
      <trkpt lat="42.39543" lon="0.12865">
        <ele>732.4</ele>
        <time>2017-07-02T11:00:56Z</time>
      </trkpt>
      <trkpt lat="42.39546" lon="0.12861">
        <ele>732.6</ele>
        <time>2017-07-02T11:00:58Z</time>
      </trkpt>
      <trkpt lat="42.3955" lon="0.12861">
        <ele>732.9</ele>
        <time>2017-07-02T11:00:59Z</time>
      </trkpt>
      <trkpt lat="42.39553" lon="0.12859">
        <ele>733.1</ele>
        <time>2017-07-02T11:01:00Z</time>
      </trkpt>
      <trkpt lat="42.39557" lon="0.12856">
        <ele>733.4</ele>
        <time>2017-07-02T11:01:02Z</time>
      </trkpt>
      <trkpt lat="42.3956" lon="0.12852">
        <ele>733.5</ele>
        <time>2017-07-02T11:01:04Z</time>
      </trkpt>
      <trkpt lat="42.39563" lon="0.12849">
        <ele>733.6</ele>
        <time>2017-07-02T11:01:06Z</time>
      </trkpt>
      <trkpt lat="42.39566" lon="0.12847">
        <ele>733.6</ele>
        <time>2017-07-02T11:01:08Z</time>
      </trkpt>
      <trkpt lat="42.3957" lon="0.12844">
        <ele>733.7</ele>
        <time>2017-07-02T11:01:10Z</time>
      </trkpt>
      <trkpt lat="42.39573" lon="0.12841">
        <ele>733.8</ele>
        <time>2017-07-02T11:01:12Z</time>
      </trkpt>
      <trkpt lat="42.39577" lon="0.12838">
        <ele>733.9</ele>
        <time>2017-07-02T11:01:14Z</time>
      </trkpt>
      <trkpt lat="42.3958" lon="0.12835">
        <ele>734</ele>
        <time>2017-07-02T11:01:16Z</time>
      </trkpt>
      <trkpt lat="42.39584" lon="0.12832">
        <ele>734</ele>
        <time>2017-07-02T11:01:18Z</time>
      </trkpt>
      <trkpt lat="42.39586" lon="0.12828">
        <ele>734.2</ele>
        <time>2017-07-02T11:01:20Z</time>
      </trkpt>
      <trkpt lat="42.3959" lon="0.12824">
        <ele>734.4</ele>
        <time>2017-07-02T11:01:22Z</time>
      </trkpt>
      <trkpt lat="42.39594" lon="0.1282">
        <ele>734.7</ele>
        <time>2017-07-02T11:01:24Z</time>
      </trkpt>
      <trkpt lat="42.39597" lon="0.12817">
        <ele>734.9</ele>
        <time>2017-07-02T11:01:26Z</time>
      </trkpt>
      <trkpt lat="42.39601" lon="0.12814">
        <ele>735</ele>
        <time>2017-07-02T11:01:28Z</time>
      </trkpt>
      <trkpt lat="42.39606" lon="0.12811">
        <ele>735.1</ele>
        <time>2017-07-02T11:01:30Z</time>
      </trkpt>
      <trkpt lat="42.39608" lon="0.12809">
        <ele>735.2</ele>
        <time>2017-07-02T11:01:31Z</time>
      </trkpt>
      <trkpt lat="42.39613" lon="0.12807">
        <ele>735.3</ele>
        <time>2017-07-02T11:01:33Z</time>
      </trkpt>
      <trkpt lat="42.39617" lon="0.12807">
        <ele>735.4</ele>
        <time>2017-07-02T11:01:35Z</time>
      </trkpt>
      <trkpt lat="42.3962" lon="0.12806">
        <ele>735.7</ele>
        <time>2017-07-02T11:01:37Z</time>
      </trkpt>
      <trkpt lat="42.39624" lon="0.12804">
        <ele>736</ele>
        <time>2017-07-02T11:01:39Z</time>
      </trkpt>
      <trkpt lat="42.39627" lon="0.12802">
        <ele>736.1</ele>
        <time>2017-07-02T11:01:41Z</time>
      </trkpt>
      <trkpt lat="42.39631" lon="0.12799">
        <ele>736.1</ele>
        <time>2017-07-02T11:01:43Z</time>
      </trkpt>
      <trkpt lat="42.39634" lon="0.12797">
        <ele>736.2</ele>
        <time>2017-07-02T11:01:45Z</time>
      </trkpt>
      <trkpt lat="42.39638" lon="0.12795">
        <ele>736.2</ele>
        <time>2017-07-02T11:01:47Z</time>
      </trkpt>
      <trkpt lat="42.39641" lon="0.12793">
        <ele>736.3</ele>
        <time>2017-07-02T11:01:49Z</time>
      </trkpt>
      <trkpt lat="42.39645" lon="0.1279">
        <ele>736.4</ele>
        <time>2017-07-02T11:01:51Z</time>
      </trkpt>
      <trkpt lat="42.3965" lon="0.12786">
        <ele>736.4</ele>
        <time>2017-07-02T11:01:53Z</time>
      </trkpt>
      <trkpt lat="42.39652" lon="0.12784">
        <ele>736.5</ele>
        <time>2017-07-02T11:01:54Z</time>
      </trkpt>
      <trkpt lat="42.39656" lon="0.12781">
        <ele>736.7</ele>
        <time>2017-07-02T11:01:56Z</time>
      </trkpt>
      <trkpt lat="42.39659" lon="0.12778">
        <ele>736.9</ele>
        <time>2017-07-02T11:01:58Z</time>
      </trkpt>
      <trkpt lat="42.39661" lon="0.12775">
        <ele>737.3</ele>
        <time>2017-07-02T11:02:00Z</time>
      </trkpt>
      <trkpt lat="42.39664" lon="0.12773">
        <ele>737.6</ele>
        <time>2017-07-02T11:02:02Z</time>
      </trkpt>
      <trkpt lat="42.39666" lon="0.1277">
        <ele>737.9</ele>
        <time>2017-07-02T11:02:05Z</time>
      </trkpt>
      <trkpt lat="42.39666" lon="0.12767">
        <ele>738.3</ele>
        <time>2017-07-02T11:02:08Z</time>
      </trkpt>
      <trkpt lat="42.39668" lon="0.12762">
        <ele>738.8</ele>
        <time>2017-07-02T11:02:11Z</time>
      </trkpt>
      <trkpt lat="42.39669" lon="0.12758">
        <ele>739.3</ele>
        <time>2017-07-02T11:02:14Z</time>
      </trkpt>
      <trkpt lat="42.39669" lon="0.12754">
        <ele>739.7</ele>
        <time>2017-07-02T11:02:16Z</time>
      </trkpt>
      <trkpt lat="42.39668" lon="0.1275">
        <ele>740.2</ele>
        <time>2017-07-02T11:02:19Z</time>
      </trkpt>
      <trkpt lat="42.39667" lon="0.12744">
        <ele>740.5</ele>
        <time>2017-07-02T11:02:22Z</time>
      </trkpt>
      <trkpt lat="42.39666" lon="0.12739">
        <ele>740.8</ele>
        <time>2017-07-02T11:02:25Z</time>
      </trkpt>
      <trkpt lat="42.39664" lon="0.12737">
        <ele>741.2</ele>
        <time>2017-07-02T11:02:27Z</time>
      </trkpt>
      <trkpt lat="42.39661" lon="0.12733">
        <ele>741.5</ele>
        <time>2017-07-02T11:02:30Z</time>
      </trkpt>
      <trkpt lat="42.39658" lon="0.12732">
        <ele>741.7</ele>
        <time>2017-07-02T11:02:32Z</time>
      </trkpt>
      <trkpt lat="42.39654" lon="0.12733">
        <ele>741.9</ele>
        <time>2017-07-02T11:02:34Z</time>
      </trkpt>
      <trkpt lat="42.39651" lon="0.12734">
        <ele>742.1</ele>
        <time>2017-07-02T11:02:36Z</time>
      </trkpt>
      <trkpt lat="42.39648" lon="0.12734">
        <ele>742.4</ele>
        <time>2017-07-02T11:02:38Z</time>
      </trkpt>
      <trkpt lat="42.39644" lon="0.12734">
        <ele>743</ele>
        <time>2017-07-02T11:02:41Z</time>
      </trkpt>
      <trkpt lat="42.39641" lon="0.1273">
        <ele>743.5</ele>
        <time>2017-07-02T11:02:44Z</time>
      </trkpt>
      <trkpt lat="42.3964" lon="0.12726">
        <ele>743.9</ele>
        <time>2017-07-02T11:02:46Z</time>
      </trkpt>
      <trkpt lat="42.39638" lon="0.12721">
        <ele>744.1</ele>
        <time>2017-07-02T11:02:48Z</time>
      </trkpt>
      <trkpt lat="42.39636" lon="0.12716">
        <ele>744.2</ele>
        <time>2017-07-02T11:02:50Z</time>
      </trkpt>
      <trkpt lat="42.39633" lon="0.12713">
        <ele>744.2</ele>
        <time>2017-07-02T11:02:52Z</time>
      </trkpt>
      <trkpt lat="42.39631" lon="0.12712">
        <ele>744.3</ele>
        <time>2017-07-02T11:02:54Z</time>
      </trkpt>
      <trkpt lat="42.39626" lon="0.12711">
        <ele>744.3</ele>
        <time>2017-07-02T11:02:56Z</time>
      </trkpt>
      <trkpt lat="42.39622" lon="0.12711">
        <ele>744.3</ele>
        <time>2017-07-02T11:02:57Z</time>
      </trkpt>
      <trkpt lat="42.39618" lon="0.12711">
        <ele>744.2</ele>
        <time>2017-07-02T11:02:58Z</time>
      </trkpt>
      <trkpt lat="42.39614" lon="0.12712">
        <ele>744.2</ele>
        <time>2017-07-02T11:02:59Z</time>
      </trkpt>
      <trkpt lat="42.39611" lon="0.12714">
        <ele>744.1</ele>
        <time>2017-07-02T11:03:00Z</time>
      </trkpt>
      <trkpt lat="42.39608" lon="0.12716">
        <ele>744.1</ele>
        <time>2017-07-02T11:03:01Z</time>
      </trkpt>
      <trkpt lat="42.39605" lon="0.12718">
        <ele>744.1</ele>
        <time>2017-07-02T11:03:03Z</time>
      </trkpt>
      <trkpt lat="42.39602" lon="0.12717">
        <ele>744.1</ele>
        <time>2017-07-02T11:03:05Z</time>
      </trkpt>
      <trkpt lat="42.39599" lon="0.12714">
        <ele>744.1</ele>
        <time>2017-07-02T11:03:07Z</time>
      </trkpt>
      <trkpt lat="42.39595" lon="0.12711">
        <ele>744.2</ele>
        <time>2017-07-02T11:03:09Z</time>
      </trkpt>
      <trkpt lat="42.39592" lon="0.12708">
        <ele>744.3</ele>
        <time>2017-07-02T11:03:11Z</time>
      </trkpt>
      <trkpt lat="42.3959" lon="0.12706">
        <ele>744.3</ele>
        <time>2017-07-02T11:03:13Z</time>
      </trkpt>
      <trkpt lat="42.39587" lon="0.12704">
        <ele>744.4</ele>
        <time>2017-07-02T11:03:15Z</time>
      </trkpt>
      <trkpt lat="42.39585" lon="0.12702">
        <ele>744.5</ele>
        <time>2017-07-02T11:03:17Z</time>
      </trkpt>
      <trkpt lat="42.39582" lon="0.127">
        <ele>744.7</ele>
        <time>2017-07-02T11:03:19Z</time>
      </trkpt>
      <trkpt lat="42.39579" lon="0.127">
        <ele>745</ele>
        <time>2017-07-02T11:03:21Z</time>
      </trkpt>
      <trkpt lat="42.39576" lon="0.127">
        <ele>745.2</ele>
        <time>2017-07-02T11:03:23Z</time>
      </trkpt>
      <trkpt lat="42.39573" lon="0.12699">
        <ele>745.5</ele>
        <time>2017-07-02T11:03:26Z</time>
      </trkpt>
      <trkpt lat="42.39569" lon="0.12697">
        <ele>745.7</ele>
        <time>2017-07-02T11:03:29Z</time>
      </trkpt>
      <trkpt lat="42.39566" lon="0.12694">
        <ele>746.1</ele>
        <time>2017-07-02T11:03:32Z</time>
      </trkpt>
      <trkpt lat="42.39564" lon="0.12691">
        <ele>746.5</ele>
        <time>2017-07-02T11:03:34Z</time>
      </trkpt>
      <trkpt lat="42.39563" lon="0.12688">
        <ele>746.7</ele>
        <time>2017-07-02T11:03:36Z</time>
      </trkpt>
      <trkpt lat="42.39562" lon="0.12683">
        <ele>747.1</ele>
        <time>2017-07-02T11:03:39Z</time>
      </trkpt>
      <trkpt lat="42.39561" lon="0.1268">
        <ele>747.5</ele>
        <time>2017-07-02T11:03:41Z</time>
      </trkpt>
      <trkpt lat="42.39558" lon="0.12676">
        <ele>747.9</ele>
        <time>2017-07-02T11:03:43Z</time>
      </trkpt>
      <trkpt lat="42.39556" lon="0.12673">
        <ele>748.2</ele>
        <time>2017-07-02T11:03:45Z</time>
      </trkpt>
      <trkpt lat="42.39553" lon="0.12671">
        <ele>748.5</ele>
        <time>2017-07-02T11:03:47Z</time>
      </trkpt>
      <trkpt lat="42.3955" lon="0.1267">
        <ele>748.9</ele>
        <time>2017-07-02T11:03:49Z</time>
      </trkpt>
      <trkpt lat="42.39547" lon="0.12669">
        <ele>749.3</ele>
        <time>2017-07-02T11:03:51Z</time>
      </trkpt>
      <trkpt lat="42.39544" lon="0.12668">
        <ele>749.6</ele>
        <time>2017-07-02T11:03:53Z</time>
      </trkpt>
      <trkpt lat="42.3954" lon="0.12669">
        <ele>749.8</ele>
        <time>2017-07-02T11:03:55Z</time>
      </trkpt>
      <trkpt lat="42.39537" lon="0.1267">
        <ele>750.2</ele>
        <time>2017-07-02T11:03:57Z</time>
      </trkpt>
      <trkpt lat="42.39534" lon="0.12672">
        <ele>750.6</ele>
        <time>2017-07-02T11:03:59Z</time>
      </trkpt>
      <trkpt lat="42.3953" lon="0.12672">
        <ele>750.9</ele>
        <time>2017-07-02T11:04:01Z</time>
      </trkpt>
      <trkpt lat="42.39527" lon="0.12671">
        <ele>751</ele>
        <time>2017-07-02T11:04:03Z</time>
      </trkpt>
      <trkpt lat="42.39524" lon="0.12669">
        <ele>751.2</ele>
        <time>2017-07-02T11:04:05Z</time>
      </trkpt>
      <trkpt lat="42.39521" lon="0.12668">
        <ele>751.3</ele>
        <time>2017-07-02T11:04:07Z</time>
      </trkpt>
      <trkpt lat="42.39517" lon="0.12667">
        <ele>751.4</ele>
        <time>2017-07-02T11:04:09Z</time>
      </trkpt>
      <trkpt lat="42.39514" lon="0.12666">
        <ele>751.6</ele>
        <time>2017-07-02T11:04:11Z</time>
      </trkpt>
      <trkpt lat="42.39511" lon="0.12665">
        <ele>751.8</ele>
        <time>2017-07-02T11:04:13Z</time>
      </trkpt>
      <trkpt lat="42.39509" lon="0.12663">
        <ele>752.1</ele>
        <time>2017-07-02T11:04:15Z</time>
      </trkpt>
      <trkpt lat="42.39506" lon="0.12662">
        <ele>752.2</ele>
        <time>2017-07-02T11:04:17Z</time>
      </trkpt>
      <trkpt lat="42.39503" lon="0.12662">
        <ele>752.3</ele>
        <time>2017-07-02T11:04:19Z</time>
      </trkpt>
      <trkpt lat="42.395" lon="0.12662">
        <ele>752.4</ele>
        <time>2017-07-02T11:04:21Z</time>
      </trkpt>
      <trkpt lat="42.39498" lon="0.12662">
        <ele>752.5</ele>
        <time>2017-07-02T11:04:23Z</time>
      </trkpt>
      <trkpt lat="42.39495" lon="0.12664">
        <ele>752.7</ele>
        <time>2017-07-02T11:04:25Z</time>
      </trkpt>
      <trkpt lat="42.39492" lon="0.12666">
        <ele>752.8</ele>
        <time>2017-07-02T11:04:27Z</time>
      </trkpt>
      <trkpt lat="42.39489" lon="0.12667">
        <ele>753.1</ele>
        <time>2017-07-02T11:04:29Z</time>
      </trkpt>
      <trkpt lat="42.39486" lon="0.12667">
        <ele>753.4</ele>
        <time>2017-07-02T11:04:31Z</time>
      </trkpt>
      <trkpt lat="42.39483" lon="0.12665">
        <ele>753.6</ele>
        <time>2017-07-02T11:04:33Z</time>
      </trkpt>
      <trkpt lat="42.39481" lon="0.12663">
        <ele>753.8</ele>
        <time>2017-07-02T11:04:35Z</time>
      </trkpt>
      <trkpt lat="42.39478" lon="0.12661">
        <ele>754</ele>
        <time>2017-07-02T11:04:37Z</time>
      </trkpt>
      <trkpt lat="42.39476" lon="0.12659">
        <ele>754.2</ele>
        <time>2017-07-02T11:04:39Z</time>
      </trkpt>
      <trkpt lat="42.39473" lon="0.12658">
        <ele>754.6</ele>
        <time>2017-07-02T11:04:42Z</time>
      </trkpt>
      <trkpt lat="42.3947" lon="0.12658">
        <ele>754.9</ele>
        <time>2017-07-02T11:04:45Z</time>
      </trkpt>
      <trkpt lat="42.39466" lon="0.1266">
        <ele>755.3</ele>
        <time>2017-07-02T11:04:48Z</time>
      </trkpt>
      <trkpt lat="42.39464" lon="0.12662">
        <ele>755.5</ele>
        <time>2017-07-02T11:04:50Z</time>
      </trkpt>
      <trkpt lat="42.3946" lon="0.12665">
        <ele>755.8</ele>
        <time>2017-07-02T11:04:53Z</time>
      </trkpt>
      <trkpt lat="42.39457" lon="0.12663">
        <ele>756.2</ele>
        <time>2017-07-02T11:04:55Z</time>
      </trkpt>
      <trkpt lat="42.39454" lon="0.12658">
        <ele>756.4</ele>
        <time>2017-07-02T11:04:57Z</time>
      </trkpt>
      <trkpt lat="42.39454" lon="0.12653">
        <ele>756.6</ele>
        <time>2017-07-02T11:04:59Z</time>
      </trkpt>
      <trkpt lat="42.39454" lon="0.1265">
        <ele>756.7</ele>
        <time>2017-07-02T11:05:01Z</time>
      </trkpt>
      <trkpt lat="42.39456" lon="0.12646">
        <ele>756.8</ele>
        <time>2017-07-02T11:05:03Z</time>
      </trkpt>
      <trkpt lat="42.3946" lon="0.12642">
        <ele>757.1</ele>
        <time>2017-07-02T11:05:49Z</time>
      </trkpt>
      <trkpt lat="42.39463" lon="0.1264">
        <ele>757.3</ele>
        <time>2017-07-02T11:05:51Z</time>
      </trkpt>
      <trkpt lat="42.39466" lon="0.12638">
        <ele>757.6</ele>
        <time>2017-07-02T11:05:53Z</time>
      </trkpt>
      <trkpt lat="42.39468" lon="0.12636">
        <ele>758</ele>
        <time>2017-07-02T11:05:55Z</time>
      </trkpt>
      <trkpt lat="42.3947" lon="0.12634">
        <ele>758.4</ele>
        <time>2017-07-02T11:05:57Z</time>
      </trkpt>
      <trkpt lat="42.39472" lon="0.12631">
        <ele>758.8</ele>
        <time>2017-07-02T11:05:59Z</time>
      </trkpt>
      <trkpt lat="42.39475" lon="0.12628">
        <ele>759.1</ele>
        <time>2017-07-02T11:06:01Z</time>
      </trkpt>
      <trkpt lat="42.39477" lon="0.12627">
        <ele>759.3</ele>
        <time>2017-07-02T11:06:03Z</time>
      </trkpt>
      <trkpt lat="42.3948" lon="0.12624">
        <ele>759.7</ele>
        <time>2017-07-02T11:06:06Z</time>
      </trkpt>
      <trkpt lat="42.39483" lon="0.12622">
        <ele>760</ele>
        <time>2017-07-02T11:06:08Z</time>
      </trkpt>
      <trkpt lat="42.39486" lon="0.12621">
        <ele>760.6</ele>
        <time>2017-07-02T11:06:11Z</time>
      </trkpt>
      <trkpt lat="42.3949" lon="0.12621">
        <ele>761.2</ele>
        <time>2017-07-02T11:06:13Z</time>
      </trkpt>
      <trkpt lat="42.39494" lon="0.1262">
        <ele>761.7</ele>
        <time>2017-07-02T11:06:15Z</time>
      </trkpt>
      <trkpt lat="42.39498" lon="0.1262">
        <ele>762.4</ele>
        <time>2017-07-02T11:06:18Z</time>
      </trkpt>
      <trkpt lat="42.39501" lon="0.12618">
        <ele>763</ele>
        <time>2017-07-02T11:06:21Z</time>
      </trkpt>
      <trkpt lat="42.39504" lon="0.12616">
        <ele>763.5</ele>
        <time>2017-07-02T11:06:23Z</time>
      </trkpt>
      <trkpt lat="42.39507" lon="0.12616">
        <ele>764</ele>
        <time>2017-07-02T11:06:25Z</time>
      </trkpt>
      <trkpt lat="42.3951" lon="0.12618">
        <ele>764.5</ele>
        <time>2017-07-02T11:06:27Z</time>
      </trkpt>
      <trkpt lat="42.39513" lon="0.12619">
        <ele>764.7</ele>
        <time>2017-07-02T11:06:29Z</time>
      </trkpt>
      <trkpt lat="42.39516" lon="0.12622">
        <ele>764.9</ele>
        <time>2017-07-02T11:06:32Z</time>
      </trkpt>
      <trkpt lat="42.39518" lon="0.12624">
        <ele>765</ele>
        <time>2017-07-02T11:06:34Z</time>
      </trkpt>
      <trkpt lat="42.39523" lon="0.12623">
        <ele>765.2</ele>
        <time>2017-07-02T11:06:37Z</time>
      </trkpt>
      <trkpt lat="42.39525" lon="0.1262">
        <ele>765.4</ele>
        <time>2017-07-02T11:06:39Z</time>
      </trkpt>
      <trkpt lat="42.39528" lon="0.12617">
        <ele>765.6</ele>
        <time>2017-07-02T11:06:41Z</time>
      </trkpt>
      <trkpt lat="42.3953" lon="0.12614">
        <ele>765.8</ele>
        <time>2017-07-02T11:06:43Z</time>
      </trkpt>
      <trkpt lat="42.39532" lon="0.12612">
        <ele>766.1</ele>
        <time>2017-07-02T11:06:46Z</time>
      </trkpt>
      <trkpt lat="42.39536" lon="0.12611">
        <ele>766.6</ele>
        <time>2017-07-02T11:06:48Z</time>
      </trkpt>
      <trkpt lat="42.39539" lon="0.12611">
        <ele>766.9</ele>
        <time>2017-07-02T11:06:50Z</time>
      </trkpt>
      <trkpt lat="42.39542" lon="0.12611">
        <ele>767.1</ele>
        <time>2017-07-02T11:06:52Z</time>
      </trkpt>
      <trkpt lat="42.39546" lon="0.12607">
        <ele>767.5</ele>
        <time>2017-07-02T11:06:55Z</time>
      </trkpt>
      <trkpt lat="42.39549" lon="0.12606">
        <ele>767.7</ele>
        <time>2017-07-02T11:06:57Z</time>
      </trkpt>
      <trkpt lat="42.39552" lon="0.12605">
        <ele>768.2</ele>
        <time>2017-07-02T11:06:59Z</time>
      </trkpt>
      <trkpt lat="42.39556" lon="0.12604">
        <ele>768.8</ele>
        <time>2017-07-02T11:07:01Z</time>
      </trkpt>
      <trkpt lat="42.39559" lon="0.12604">
        <ele>769.2</ele>
        <time>2017-07-02T11:07:03Z</time>
      </trkpt>
      <trkpt lat="42.39562" lon="0.12605">
        <ele>769.5</ele>
        <time>2017-07-02T11:07:05Z</time>
      </trkpt>
      <trkpt lat="42.39565" lon="0.12603">
        <ele>769.8</ele>
        <time>2017-07-02T11:07:07Z</time>
      </trkpt>
      <trkpt lat="42.39567" lon="0.12602">
        <ele>770.3</ele>
        <time>2017-07-02T11:07:09Z</time>
      </trkpt>
      <trkpt lat="42.3957" lon="0.12601">
        <ele>770.7</ele>
        <time>2017-07-02T11:07:11Z</time>
      </trkpt>
      <trkpt lat="42.39573" lon="0.12599">
        <ele>771.1</ele>
        <time>2017-07-02T11:07:14Z</time>
      </trkpt>
      <trkpt lat="42.39577" lon="0.12598">
        <ele>771.4</ele>
        <time>2017-07-02T11:07:16Z</time>
      </trkpt>
      <trkpt lat="42.39581" lon="0.12599">
        <ele>771.8</ele>
        <time>2017-07-02T11:07:18Z</time>
      </trkpt>
      <trkpt lat="42.39584" lon="0.126">
        <ele>772.2</ele>
        <time>2017-07-02T11:07:20Z</time>
      </trkpt>
      <trkpt lat="42.39587" lon="0.12598">
        <ele>772.9</ele>
        <time>2017-07-02T11:07:23Z</time>
      </trkpt>
      <trkpt lat="42.39589" lon="0.12595">
        <ele>773.5</ele>
        <time>2017-07-02T11:07:25Z</time>
      </trkpt>
      <trkpt lat="42.39592" lon="0.12593">
        <ele>774.2</ele>
        <time>2017-07-02T11:07:27Z</time>
      </trkpt>
      <trkpt lat="42.39595" lon="0.12593">
        <ele>774.9</ele>
        <time>2017-07-02T11:07:29Z</time>
      </trkpt>
      <trkpt lat="42.39599" lon="0.12594">
        <ele>775.3</ele>
        <time>2017-07-02T11:07:31Z</time>
      </trkpt>
      <trkpt lat="42.39601" lon="0.12598">
        <ele>775.7</ele>
        <time>2017-07-02T11:07:33Z</time>
      </trkpt>
      <trkpt lat="42.39603" lon="0.12602">
        <ele>776.2</ele>
        <time>2017-07-02T11:07:35Z</time>
      </trkpt>
      <trkpt lat="42.39604" lon="0.12606">
        <ele>776.8</ele>
        <time>2017-07-02T11:07:37Z</time>
      </trkpt>
      <trkpt lat="42.39607" lon="0.12609">
        <ele>777.3</ele>
        <time>2017-07-02T11:07:39Z</time>
      </trkpt>
      <trkpt lat="42.39611" lon="0.12608">
        <ele>777.7</ele>
        <time>2017-07-02T11:07:42Z</time>
      </trkpt>
      <trkpt lat="42.39614" lon="0.12607">
        <ele>777.9</ele>
        <time>2017-07-02T11:07:44Z</time>
      </trkpt>
      <trkpt lat="42.39617" lon="0.12607">
        <ele>778.2</ele>
        <time>2017-07-02T11:07:46Z</time>
      </trkpt>
      <trkpt lat="42.3962" lon="0.12606">
        <ele>778.6</ele>
        <time>2017-07-02T11:07:48Z</time>
      </trkpt>
      <trkpt lat="42.39624" lon="0.12607">
        <ele>779.2</ele>
        <time>2017-07-02T11:07:50Z</time>
      </trkpt>
      <trkpt lat="42.39627" lon="0.12608">
        <ele>779.6</ele>
        <time>2017-07-02T11:07:52Z</time>
      </trkpt>
      <trkpt lat="42.3963" lon="0.12606">
        <ele>779.9</ele>
        <time>2017-07-02T11:07:54Z</time>
      </trkpt>
      <trkpt lat="42.39633" lon="0.12602">
        <ele>780.2</ele>
        <time>2017-07-02T11:07:57Z</time>
      </trkpt>
      <trkpt lat="42.39636" lon="0.12601">
        <ele>780.4</ele>
        <time>2017-07-02T11:07:59Z</time>
      </trkpt>
      <trkpt lat="42.3964" lon="0.12601">
        <ele>780.9</ele>
        <time>2017-07-02T11:08:01Z</time>
      </trkpt>
      <trkpt lat="42.39643" lon="0.126">
        <ele>781.5</ele>
        <time>2017-07-02T11:08:03Z</time>
      </trkpt>
      <trkpt lat="42.39645" lon="0.12597">
        <ele>781.9</ele>
        <time>2017-07-02T11:08:07Z</time>
      </trkpt>
      <trkpt lat="42.39648" lon="0.12596">
        <ele>782.2</ele>
        <time>2017-07-02T11:08:10Z</time>
      </trkpt>
      <trkpt lat="42.39652" lon="0.12596">
        <ele>782.5</ele>
        <time>2017-07-02T11:08:13Z</time>
      </trkpt>
      <trkpt lat="42.39655" lon="0.12595">
        <ele>783</ele>
        <time>2017-07-02T11:08:15Z</time>
      </trkpt>
      <trkpt lat="42.39658" lon="0.12595">
        <ele>783.5</ele>
        <time>2017-07-02T11:08:17Z</time>
      </trkpt>
      <trkpt lat="42.39661" lon="0.12592">
        <ele>783.7</ele>
        <time>2017-07-02T11:08:20Z</time>
      </trkpt>
      <trkpt lat="42.39665" lon="0.12592">
        <ele>784</ele>
        <time>2017-07-02T11:08:22Z</time>
      </trkpt>
      <trkpt lat="42.39668" lon="0.12592">
        <ele>784.3</ele>
        <time>2017-07-02T11:08:24Z</time>
      </trkpt>
      <trkpt lat="42.39671" lon="0.12592">
        <ele>784.6</ele>
        <time>2017-07-02T11:08:26Z</time>
      </trkpt>
      <trkpt lat="42.39674" lon="0.12592">
        <ele>785.1</ele>
        <time>2017-07-02T11:08:28Z</time>
      </trkpt>
      <trkpt lat="42.39678" lon="0.12591">
        <ele>785.6</ele>
        <time>2017-07-02T11:08:31Z</time>
      </trkpt>
      <trkpt lat="42.39681" lon="0.12587">
        <ele>785.9</ele>
        <time>2017-07-02T11:08:34Z</time>
      </trkpt>
      <trkpt lat="42.39684" lon="0.12585">
        <ele>786.3</ele>
        <time>2017-07-02T11:08:37Z</time>
      </trkpt>
      <trkpt lat="42.39687" lon="0.12585">
        <ele>786.8</ele>
        <time>2017-07-02T11:08:39Z</time>
      </trkpt>
      <trkpt lat="42.39691" lon="0.12587">
        <ele>787.3</ele>
        <time>2017-07-02T11:08:42Z</time>
      </trkpt>
      <trkpt lat="42.39695" lon="0.12586">
        <ele>787.7</ele>
        <time>2017-07-02T11:08:44Z</time>
      </trkpt>
      <trkpt lat="42.39698" lon="0.12585">
        <ele>787.9</ele>
        <time>2017-07-02T11:08:46Z</time>
      </trkpt>
      <trkpt lat="42.39701" lon="0.12585">
        <ele>788.1</ele>
        <time>2017-07-02T11:08:48Z</time>
      </trkpt>
      <trkpt lat="42.39705" lon="0.12584">
        <ele>788.3</ele>
        <time>2017-07-02T11:08:50Z</time>
      </trkpt>
      <trkpt lat="42.39707" lon="0.12582">
        <ele>788.5</ele>
        <time>2017-07-02T11:08:52Z</time>
      </trkpt>
      <trkpt lat="42.39709" lon="0.12579">
        <ele>788.8</ele>
        <time>2017-07-02T11:08:54Z</time>
      </trkpt>
      <trkpt lat="42.39713" lon="0.12577">
        <ele>789.4</ele>
        <time>2017-07-02T11:08:57Z</time>
      </trkpt>
      <trkpt lat="42.39716" lon="0.12576">
        <ele>789.9</ele>
        <time>2017-07-02T11:09:00Z</time>
      </trkpt>
      <trkpt lat="42.39718" lon="0.12573">
        <ele>790.3</ele>
        <time>2017-07-02T11:09:03Z</time>
      </trkpt>
      <trkpt lat="42.39722" lon="0.12572">
        <ele>790.7</ele>
        <time>2017-07-02T11:09:06Z</time>
      </trkpt>
      <trkpt lat="42.39727" lon="0.12571">
        <ele>791.4</ele>
        <time>2017-07-02T11:09:09Z</time>
      </trkpt>
      <trkpt lat="42.3973" lon="0.1257">
        <ele>791.9</ele>
        <time>2017-07-02T11:09:11Z</time>
      </trkpt>
      <trkpt lat="42.39733" lon="0.12571">
        <ele>792.1</ele>
        <time>2017-07-02T11:09:13Z</time>
      </trkpt>
      <trkpt lat="42.39736" lon="0.12572">
        <ele>792.3</ele>
        <time>2017-07-02T11:09:15Z</time>
      </trkpt>
      <trkpt lat="42.39739" lon="0.12572">
        <ele>792.6</ele>
        <time>2017-07-02T11:09:17Z</time>
      </trkpt>
      <trkpt lat="42.39742" lon="0.1257">
        <ele>793</ele>
        <time>2017-07-02T11:09:20Z</time>
      </trkpt>
      <trkpt lat="42.39746" lon="0.12568">
        <ele>793.5</ele>
        <time>2017-07-02T11:09:22Z</time>
      </trkpt>
      <trkpt lat="42.39749" lon="0.12567">
        <ele>793.9</ele>
        <time>2017-07-02T11:09:24Z</time>
      </trkpt>
      <trkpt lat="42.39753" lon="0.12567">
        <ele>794.4</ele>
        <time>2017-07-02T11:09:27Z</time>
      </trkpt>
      <trkpt lat="42.39756" lon="0.12568">
        <ele>794.8</ele>
        <time>2017-07-02T11:09:29Z</time>
      </trkpt>
      <trkpt lat="42.3976" lon="0.12567">
        <ele>795.4</ele>
        <time>2017-07-02T11:09:32Z</time>
      </trkpt>
      <trkpt lat="42.39765" lon="0.12566">
        <ele>795.8</ele>
        <time>2017-07-02T11:09:34Z</time>
      </trkpt>
      <trkpt lat="42.39769" lon="0.12565">
        <ele>796.1</ele>
        <time>2017-07-02T11:09:36Z</time>
      </trkpt>
      <trkpt lat="42.39773" lon="0.12565">
        <ele>796.2</ele>
        <time>2017-07-02T11:09:38Z</time>
      </trkpt>
      <trkpt lat="42.39776" lon="0.12564">
        <ele>796.3</ele>
        <time>2017-07-02T11:09:40Z</time>
      </trkpt>
      <trkpt lat="42.3978" lon="0.12562">
        <ele>796.5</ele>
        <time>2017-07-02T11:09:42Z</time>
      </trkpt>
      <trkpt lat="42.39782" lon="0.1256">
        <ele>796.7</ele>
        <time>2017-07-02T11:09:43Z</time>
      </trkpt>
      <trkpt lat="42.39785" lon="0.12559">
        <ele>797</ele>
        <time>2017-07-02T11:09:44Z</time>
      </trkpt>
      <trkpt lat="42.39789" lon="0.12558">
        <ele>797.5</ele>
        <time>2017-07-02T11:09:46Z</time>
      </trkpt>
      <trkpt lat="42.39793" lon="0.12557">
        <ele>797.9</ele>
        <time>2017-07-02T11:09:48Z</time>
      </trkpt>
      <trkpt lat="42.39796" lon="0.12555">
        <ele>798.1</ele>
        <time>2017-07-02T11:09:50Z</time>
      </trkpt>
      <trkpt lat="42.398" lon="0.12554">
        <ele>798.2</ele>
        <time>2017-07-02T11:09:52Z</time>
      </trkpt>
      <trkpt lat="42.39804" lon="0.12553">
        <ele>798.4</ele>
        <time>2017-07-02T11:09:54Z</time>
      </trkpt>
      <trkpt lat="42.39807" lon="0.12552">
        <ele>798.6</ele>
        <time>2017-07-02T11:09:56Z</time>
      </trkpt>
      <trkpt lat="42.39811" lon="0.12551">
        <ele>798.8</ele>
        <time>2017-07-02T11:09:58Z</time>
      </trkpt>
      <trkpt lat="42.39815" lon="0.12549">
        <ele>799.4</ele>
        <time>2017-07-02T11:10:00Z</time>
      </trkpt>
      <trkpt lat="42.39818" lon="0.12547">
        <ele>799.8</ele>
        <time>2017-07-02T11:10:02Z</time>
      </trkpt>
      <trkpt lat="42.39821" lon="0.12545">
        <ele>800.1</ele>
        <time>2017-07-02T11:10:04Z</time>
      </trkpt>
      <trkpt lat="42.39825" lon="0.12545">
        <ele>800.4</ele>
        <time>2017-07-02T11:10:06Z</time>
      </trkpt>
      <trkpt lat="42.39828" lon="0.12545">
        <ele>800.7</ele>
        <time>2017-07-02T11:10:08Z</time>
      </trkpt>
      <trkpt lat="42.39831" lon="0.12544">
        <ele>801.2</ele>
        <time>2017-07-02T11:10:10Z</time>
      </trkpt>
      <trkpt lat="42.39835" lon="0.12542">
        <ele>801.7</ele>
        <time>2017-07-02T11:10:12Z</time>
      </trkpt>
      <trkpt lat="42.39839" lon="0.12541">
        <ele>802.1</ele>
        <time>2017-07-02T11:10:14Z</time>
      </trkpt>
      <trkpt lat="42.39842" lon="0.1254">
        <ele>802.4</ele>
        <time>2017-07-02T11:10:16Z</time>
      </trkpt>
      <trkpt lat="42.39845" lon="0.12539">
        <ele>802.6</ele>
        <time>2017-07-02T11:10:18Z</time>
      </trkpt>
      <trkpt lat="42.39849" lon="0.12537">
        <ele>802.9</ele>
        <time>2017-07-02T11:10:20Z</time>
      </trkpt>
      <trkpt lat="42.39852" lon="0.12536">
        <ele>803.2</ele>
        <time>2017-07-02T11:10:22Z</time>
      </trkpt>
      <trkpt lat="42.39856" lon="0.12533">
        <ele>803.8</ele>
        <time>2017-07-02T11:10:24Z</time>
      </trkpt>
      <trkpt lat="42.39859" lon="0.12531">
        <ele>804.3</ele>
        <time>2017-07-02T11:10:26Z</time>
      </trkpt>
      <trkpt lat="42.39862" lon="0.1253">
        <ele>804.8</ele>
        <time>2017-07-02T11:10:28Z</time>
      </trkpt>
      <trkpt lat="42.39865" lon="0.12528">
        <ele>805.4</ele>
        <time>2017-07-02T11:10:30Z</time>
      </trkpt>
      <trkpt lat="42.39869" lon="0.12528">
        <ele>806.1</ele>
        <time>2017-07-02T11:10:32Z</time>
      </trkpt>
      <trkpt lat="42.39874" lon="0.1253">
        <ele>806.6</ele>
        <time>2017-07-02T11:10:34Z</time>
      </trkpt>
      <trkpt lat="42.39878" lon="0.12531">
        <ele>807.3</ele>
        <time>2017-07-02T11:10:36Z</time>
      </trkpt>
      <trkpt lat="42.39882" lon="0.1253">
        <ele>807.9</ele>
        <time>2017-07-02T11:10:38Z</time>
      </trkpt>
      <trkpt lat="42.39886" lon="0.12527">
        <ele>808.3</ele>
        <time>2017-07-02T11:10:40Z</time>
      </trkpt>
      <trkpt lat="42.39889" lon="0.12526">
        <ele>808.5</ele>
        <time>2017-07-02T11:10:42Z</time>
      </trkpt>
      <trkpt lat="42.39891" lon="0.12524">
        <ele>808.8</ele>
        <time>2017-07-02T11:10:44Z</time>
      </trkpt>
      <trkpt lat="42.39895" lon="0.12524">
        <ele>809.3</ele>
        <time>2017-07-02T11:10:46Z</time>
      </trkpt>
      <trkpt lat="42.39898" lon="0.12525">
        <ele>809.9</ele>
        <time>2017-07-02T11:10:49Z</time>
      </trkpt>
      <trkpt lat="42.39901" lon="0.12523">
        <ele>810.2</ele>
        <time>2017-07-02T11:10:52Z</time>
      </trkpt>
      <trkpt lat="42.39904" lon="0.12522">
        <ele>810.4</ele>
        <time>2017-07-02T11:10:54Z</time>
      </trkpt>
      <trkpt lat="42.39908" lon="0.12523">
        <ele>810.6</ele>
        <time>2017-07-02T11:10:56Z</time>
      </trkpt>
      <trkpt lat="42.39911" lon="0.12521">
        <ele>810.8</ele>
        <time>2017-07-02T11:10:58Z</time>
      </trkpt>
      <trkpt lat="42.39914" lon="0.12518">
        <ele>810.9</ele>
        <time>2017-07-02T11:11:00Z</time>
      </trkpt>
      <trkpt lat="42.39917" lon="0.12515">
        <ele>811</ele>
        <time>2017-07-02T11:11:02Z</time>
      </trkpt>
      <trkpt lat="42.3992" lon="0.12514">
        <ele>811.3</ele>
        <time>2017-07-02T11:11:04Z</time>
      </trkpt>
      <trkpt lat="42.39923" lon="0.12513">
        <ele>811.5</ele>
        <time>2017-07-02T11:11:06Z</time>
      </trkpt>
      <trkpt lat="42.39927" lon="0.1251">
        <ele>811.8</ele>
        <time>2017-07-02T11:11:09Z</time>
      </trkpt>
      <trkpt lat="42.3993" lon="0.12509">
        <ele>811.9</ele>
        <time>2017-07-02T11:11:11Z</time>
      </trkpt>
      <trkpt lat="42.39933" lon="0.12508">
        <ele>812</ele>
        <time>2017-07-02T11:11:13Z</time>
      </trkpt>
      <trkpt lat="42.39936" lon="0.12506">
        <ele>812</ele>
        <time>2017-07-02T11:11:15Z</time>
      </trkpt>
      <trkpt lat="42.39938" lon="0.12503">
        <ele>812</ele>
        <time>2017-07-02T11:11:17Z</time>
      </trkpt>
      <trkpt lat="42.39941" lon="0.125">
        <ele>812</ele>
        <time>2017-07-02T11:11:20Z</time>
      </trkpt>
      <trkpt lat="42.39944" lon="0.12495">
        <ele>812</ele>
        <time>2017-07-02T11:11:22Z</time>
      </trkpt>
      <trkpt lat="42.39949" lon="0.12491">
        <ele>811.9</ele>
        <time>2017-07-02T11:11:24Z</time>
      </trkpt>
      <trkpt lat="42.39952" lon="0.12487">
        <ele>811.7</ele>
        <time>2017-07-02T11:11:26Z</time>
      </trkpt>
      <trkpt lat="42.39954" lon="0.12483">
        <ele>811.6</ele>
        <time>2017-07-02T11:11:28Z</time>
      </trkpt>
      <trkpt lat="42.39957" lon="0.12478">
        <ele>811.2</ele>
        <time>2017-07-02T11:11:30Z</time>
      </trkpt>
      <trkpt lat="42.39959" lon="0.12476">
        <ele>810.9</ele>
        <time>2017-07-02T11:11:32Z</time>
      </trkpt>
      <trkpt lat="42.39962" lon="0.12472">
        <ele>810.5</ele>
        <time>2017-07-02T11:11:35Z</time>
      </trkpt>
      <trkpt lat="42.39964" lon="0.12469">
        <ele>810.3</ele>
        <time>2017-07-02T11:11:37Z</time>
      </trkpt>
      <trkpt lat="42.39968" lon="0.12465">
        <ele>810.1</ele>
        <time>2017-07-02T11:11:39Z</time>
      </trkpt>
      <trkpt lat="42.39971" lon="0.12463">
        <ele>809.8</ele>
        <time>2017-07-02T11:11:41Z</time>
      </trkpt>
      <trkpt lat="42.39975" lon="0.12459">
        <ele>809.4</ele>
        <time>2017-07-02T11:11:43Z</time>
      </trkpt>
      <trkpt lat="42.39977" lon="0.12457">
        <ele>809.1</ele>
        <time>2017-07-02T11:11:44Z</time>
      </trkpt>
      <trkpt lat="42.3998" lon="0.12451">
        <ele>808.7</ele>
        <time>2017-07-02T11:11:46Z</time>
      </trkpt>
      <trkpt lat="42.39982" lon="0.12449">
        <ele>808.5</ele>
        <time>2017-07-02T11:11:47Z</time>
      </trkpt>
      <trkpt lat="42.39985" lon="0.12446">
        <ele>808.4</ele>
        <time>2017-07-02T11:11:48Z</time>
      </trkpt>
      <trkpt lat="42.39987" lon="0.12444">
        <ele>808.4</ele>
        <time>2017-07-02T11:11:49Z</time>
      </trkpt>
      <trkpt lat="42.3999" lon="0.12442">
        <ele>808.3</ele>
        <time>2017-07-02T11:11:50Z</time>
      </trkpt>
      <trkpt lat="42.39992" lon="0.1244">
        <ele>808.2</ele>
        <time>2017-07-02T11:11:51Z</time>
      </trkpt>
      <trkpt lat="42.39997" lon="0.12438">
        <ele>808.1</ele>
        <time>2017-07-02T11:11:53Z</time>
      </trkpt>
      <trkpt lat="42.39999" lon="0.12437">
        <ele>808</ele>
        <time>2017-07-02T11:11:55Z</time>
      </trkpt>
      <trkpt lat="42.40002" lon="0.12434">
        <ele>808</ele>
        <time>2017-07-02T11:11:57Z</time>
      </trkpt>
      <trkpt lat="42.40006" lon="0.1243">
        <ele>807.9</ele>
        <time>2017-07-02T11:11:59Z</time>
      </trkpt>
      <trkpt lat="42.40008" lon="0.12428">
        <ele>807.8</ele>
        <time>2017-07-02T11:12:00Z</time>
      </trkpt>
      <trkpt lat="42.40012" lon="0.12425">
        <ele>807.7</ele>
        <time>2017-07-02T11:12:02Z</time>
      </trkpt>
      <trkpt lat="42.40016" lon="0.1242">
        <ele>807.5</ele>
        <time>2017-07-02T11:12:04Z</time>
      </trkpt>
      <trkpt lat="42.40019" lon="0.12417">
        <ele>807.3</ele>
        <time>2017-07-02T11:12:05Z</time>
      </trkpt>
      <trkpt lat="42.40023" lon="0.12414">
        <ele>806.9</ele>
        <time>2017-07-02T11:12:07Z</time>
      </trkpt>
      <trkpt lat="42.40026" lon="0.12412">
        <ele>806.5</ele>
        <time>2017-07-02T11:12:09Z</time>
      </trkpt>
      <trkpt lat="42.4003" lon="0.12408">
        <ele>806.4</ele>
        <time>2017-07-02T11:12:11Z</time>
      </trkpt>
      <trkpt lat="42.40033" lon="0.12402">
        <ele>806.2</ele>
        <time>2017-07-02T11:12:13Z</time>
      </trkpt>
      <trkpt lat="42.40036" lon="0.12399">
        <ele>806.2</ele>
        <time>2017-07-02T11:12:14Z</time>
      </trkpt>
      <trkpt lat="42.40038" lon="0.12396">
        <ele>806.1</ele>
        <time>2017-07-02T11:12:15Z</time>
      </trkpt>
      <trkpt lat="42.40041" lon="0.12394">
        <ele>806.1</ele>
        <time>2017-07-02T11:12:16Z</time>
      </trkpt>
      <trkpt lat="42.40044" lon="0.12392">
        <ele>806.1</ele>
        <time>2017-07-02T11:12:17Z</time>
      </trkpt>
      <trkpt lat="42.40047" lon="0.12391">
        <ele>806</ele>
        <time>2017-07-02T11:12:19Z</time>
      </trkpt>
      <trkpt lat="42.4005" lon="0.1239">
        <ele>806</ele>
        <time>2017-07-02T11:12:21Z</time>
      </trkpt>
      <trkpt lat="42.40053" lon="0.12387">
        <ele>806</ele>
        <time>2017-07-02T11:12:23Z</time>
      </trkpt>
      <trkpt lat="42.40057" lon="0.12385">
        <ele>806</ele>
        <time>2017-07-02T11:12:25Z</time>
      </trkpt>
      <trkpt lat="42.40061" lon="0.12384">
        <ele>806</ele>
        <time>2017-07-02T11:12:27Z</time>
      </trkpt>
      <trkpt lat="42.40064" lon="0.12383">
        <ele>806</ele>
        <time>2017-07-02T11:12:29Z</time>
      </trkpt>
      <trkpt lat="42.40067" lon="0.1238">
        <ele>806.1</ele>
        <time>2017-07-02T11:12:31Z</time>
      </trkpt>
      <trkpt lat="42.40071" lon="0.12375">
        <ele>806.1</ele>
        <time>2017-07-02T11:12:33Z</time>
      </trkpt>
      <trkpt lat="42.40074" lon="0.12373">
        <ele>806.1</ele>
        <time>2017-07-02T11:12:34Z</time>
      </trkpt>
      <trkpt lat="42.40076" lon="0.1237">
        <ele>806.2</ele>
        <time>2017-07-02T11:12:35Z</time>
      </trkpt>
      <trkpt lat="42.40078" lon="0.12368">
        <ele>806.2</ele>
        <time>2017-07-02T11:12:36Z</time>
      </trkpt>
      <trkpt lat="42.40083" lon="0.12365">
        <ele>806.3</ele>
        <time>2017-07-02T11:12:38Z</time>
      </trkpt>
      <trkpt lat="42.40087" lon="0.12364">
        <ele>806.5</ele>
        <time>2017-07-02T11:12:40Z</time>
      </trkpt>
      <trkpt lat="42.40091" lon="0.12363">
        <ele>806.6</ele>
        <time>2017-07-02T11:12:42Z</time>
      </trkpt>
      <trkpt lat="42.40095" lon="0.12362">
        <ele>806.8</ele>
        <time>2017-07-02T11:12:44Z</time>
      </trkpt>
      <trkpt lat="42.40099" lon="0.12361">
        <ele>807.2</ele>
        <time>2017-07-02T11:12:46Z</time>
      </trkpt>
      <trkpt lat="42.40102" lon="0.12359">
        <ele>807.6</ele>
        <time>2017-07-02T11:12:48Z</time>
      </trkpt>
      <trkpt lat="42.40105" lon="0.12357">
        <ele>808</ele>
        <time>2017-07-02T11:12:50Z</time>
      </trkpt>
      <trkpt lat="42.40108" lon="0.12354">
        <ele>808.3</ele>
        <time>2017-07-02T11:12:52Z</time>
      </trkpt>
      <trkpt lat="42.4011" lon="0.12351">
        <ele>808.8</ele>
        <time>2017-07-02T11:12:57Z</time>
      </trkpt>
      <trkpt lat="42.40113" lon="0.12348">
        <ele>809.5</ele>
        <time>2017-07-02T11:13:00Z</time>
      </trkpt>
      <trkpt lat="42.40117" lon="0.12348">
        <ele>809.9</ele>
        <time>2017-07-02T11:13:09Z</time>
      </trkpt>
      <trkpt lat="42.4012" lon="0.12349">
        <ele>810.5</ele>
        <time>2017-07-02T11:13:12Z</time>
      </trkpt>
      <trkpt lat="42.40122" lon="0.12351">
        <ele>811</ele>
        <time>2017-07-02T11:13:15Z</time>
      </trkpt>
      <trkpt lat="42.40123" lon="0.12355">
        <ele>811.6</ele>
        <time>2017-07-02T11:13:19Z</time>
      </trkpt>
      <trkpt lat="42.40125" lon="0.12358">
        <ele>812.4</ele>
        <time>2017-07-02T11:13:23Z</time>
      </trkpt>
      <trkpt lat="42.40129" lon="0.12359">
        <ele>813.1</ele>
        <time>2017-07-02T11:13:27Z</time>
      </trkpt>
      <trkpt lat="42.40131" lon="0.12357">
        <ele>813.9</ele>
        <time>2017-07-02T11:13:30Z</time>
      </trkpt>
      <trkpt lat="42.40134" lon="0.12354">
        <ele>814.6</ele>
        <time>2017-07-02T11:13:34Z</time>
      </trkpt>
      <trkpt lat="42.40138" lon="0.12353">
        <ele>815.1</ele>
        <time>2017-07-02T11:13:37Z</time>
      </trkpt>
      <trkpt lat="42.4014" lon="0.12352">
        <ele>815.8</ele>
        <time>2017-07-02T11:13:40Z</time>
      </trkpt>
      <trkpt lat="42.40143" lon="0.12354">
        <ele>816.6</ele>
        <time>2017-07-02T11:13:43Z</time>
      </trkpt>
      <trkpt lat="42.40146" lon="0.12356">
        <ele>817.1</ele>
        <time>2017-07-02T11:13:47Z</time>
      </trkpt>
      <trkpt lat="42.40148" lon="0.12358">
        <ele>817.8</ele>
        <time>2017-07-02T11:14:05Z</time>
      </trkpt>
      <trkpt lat="42.40151" lon="0.12357">
        <ele>818.4</ele>
        <time>2017-07-02T11:14:07Z</time>
      </trkpt>
      <trkpt lat="42.40154" lon="0.12357">
        <ele>818.8</ele>
        <time>2017-07-02T11:14:09Z</time>
      </trkpt>
      <trkpt lat="42.40157" lon="0.12356">
        <ele>819.2</ele>
        <time>2017-07-02T11:14:11Z</time>
      </trkpt>
      <trkpt lat="42.40161" lon="0.12355">
        <ele>819.7</ele>
        <time>2017-07-02T11:14:13Z</time>
      </trkpt>
      <trkpt lat="42.40163" lon="0.12355">
        <ele>820.2</ele>
        <time>2017-07-02T11:14:16Z</time>
      </trkpt>
      <trkpt lat="42.40166" lon="0.12351">
        <ele>820.8</ele>
        <time>2017-07-02T11:14:19Z</time>
      </trkpt>
      <trkpt lat="42.4017" lon="0.12349">
        <ele>821.1</ele>
        <time>2017-07-02T11:14:22Z</time>
      </trkpt>
      <trkpt lat="42.40173" lon="0.12348">
        <ele>821.5</ele>
        <time>2017-07-02T11:14:24Z</time>
      </trkpt>
      <trkpt lat="42.40177" lon="0.12348">
        <ele>822.1</ele>
        <time>2017-07-02T11:14:26Z</time>
      </trkpt>
      <trkpt lat="42.40179" lon="0.12351">
        <ele>822.7</ele>
        <time>2017-07-02T11:14:28Z</time>
      </trkpt>
      <trkpt lat="42.40183" lon="0.12351">
        <ele>823.1</ele>
        <time>2017-07-02T11:14:31Z</time>
      </trkpt>
      <trkpt lat="42.40185" lon="0.1235">
        <ele>823.4</ele>
        <time>2017-07-02T11:14:33Z</time>
      </trkpt>
      <trkpt lat="42.40188" lon="0.12348">
        <ele>824</ele>
        <time>2017-07-02T11:14:35Z</time>
      </trkpt>
      <trkpt lat="42.40191" lon="0.12347">
        <ele>824.6</ele>
        <time>2017-07-02T11:14:37Z</time>
      </trkpt>
      <trkpt lat="42.40194" lon="0.12346">
        <ele>825</ele>
        <time>2017-07-02T11:14:39Z</time>
      </trkpt>
      <trkpt lat="42.40197" lon="0.12345">
        <ele>825.3</ele>
        <time>2017-07-02T11:14:41Z</time>
      </trkpt>
      <trkpt lat="42.40201" lon="0.12346">
        <ele>825.9</ele>
        <time>2017-07-02T11:14:44Z</time>
      </trkpt>
      <trkpt lat="42.40205" lon="0.12344">
        <ele>826.5</ele>
        <time>2017-07-02T11:14:47Z</time>
      </trkpt>
      <trkpt lat="42.40208" lon="0.12343">
        <ele>826.8</ele>
        <time>2017-07-02T11:14:49Z</time>
      </trkpt>
      <trkpt lat="42.40211" lon="0.12341">
        <ele>827.1</ele>
        <time>2017-07-02T11:14:52Z</time>
      </trkpt>
      <trkpt lat="42.40214" lon="0.12339">
        <ele>827.5</ele>
        <time>2017-07-02T11:14:55Z</time>
      </trkpt>
      <trkpt lat="42.40217" lon="0.12342">
        <ele>828.1</ele>
        <time>2017-07-02T11:14:58Z</time>
      </trkpt>
      <trkpt lat="42.4022" lon="0.12343">
        <ele>828.6</ele>
        <time>2017-07-02T11:15:00Z</time>
      </trkpt>
      <trkpt lat="42.40223" lon="0.12341">
        <ele>829</ele>
        <time>2017-07-02T11:15:02Z</time>
      </trkpt>
      <trkpt lat="42.40226" lon="0.12338">
        <ele>829.4</ele>
        <time>2017-07-02T11:15:05Z</time>
      </trkpt>
      <trkpt lat="42.40229" lon="0.12339">
        <ele>829.9</ele>
        <time>2017-07-02T11:15:09Z</time>
      </trkpt>
      <trkpt lat="42.40232" lon="0.12339">
        <ele>830.5</ele>
        <time>2017-07-02T11:15:13Z</time>
      </trkpt>
      <trkpt lat="42.40236" lon="0.12338">
        <ele>830.8</ele>
        <time>2017-07-02T11:15:15Z</time>
      </trkpt>
      <trkpt lat="42.40238" lon="0.12337">
        <ele>831</ele>
        <time>2017-07-02T11:15:17Z</time>
      </trkpt>
      <trkpt lat="42.40241" lon="0.12335">
        <ele>831.2</ele>
        <time>2017-07-02T11:15:19Z</time>
      </trkpt>
      <trkpt lat="42.40244" lon="0.12334">
        <ele>831.4</ele>
        <time>2017-07-02T11:15:21Z</time>
      </trkpt>
      <trkpt lat="42.40247" lon="0.12333">
        <ele>831.6</ele>
        <time>2017-07-02T11:15:23Z</time>
      </trkpt>
      <trkpt lat="42.40251" lon="0.12333">
        <ele>832.2</ele>
        <time>2017-07-02T11:15:25Z</time>
      </trkpt>
      <trkpt lat="42.40257" lon="0.12335">
        <ele>832.8</ele>
        <time>2017-07-02T11:15:27Z</time>
      </trkpt>
      <trkpt lat="42.40261" lon="0.12336">
        <ele>833.2</ele>
        <time>2017-07-02T11:15:29Z</time>
      </trkpt>
      <trkpt lat="42.40264" lon="0.12335">
        <ele>833.6</ele>
        <time>2017-07-02T11:15:31Z</time>
      </trkpt>
      <trkpt lat="42.40267" lon="0.12333">
        <ele>834.1</ele>
        <time>2017-07-02T11:15:33Z</time>
      </trkpt>
      <trkpt lat="42.40269" lon="0.12331">
        <ele>835.1</ele>
        <time>2017-07-02T11:15:35Z</time>
      </trkpt>
      <trkpt lat="42.40272" lon="0.12329">
        <ele>835.8</ele>
        <time>2017-07-02T11:15:37Z</time>
      </trkpt>
      <trkpt lat="42.40266" lon="0.12331">
        <ele>836.7</ele>
        <time>2017-07-02T11:24:08Z</time>
      </trkpt>
      <trkpt lat="42.40273" lon="0.12322">
        <ele>837.1</ele>
        <time>2017-07-02T11:24:42Z</time>
      </trkpt>
      <trkpt lat="42.40275" lon="0.12318">
        <ele>837.1</ele>
        <time>2017-07-02T11:24:45Z</time>
      </trkpt>
      <trkpt lat="42.40278" lon="0.12315">
        <ele>837.1</ele>
        <time>2017-07-02T11:24:48Z</time>
      </trkpt>
      <trkpt lat="42.40281" lon="0.12312">
        <ele>837.1</ele>
        <time>2017-07-02T11:24:50Z</time>
      </trkpt>
      <trkpt lat="42.40284" lon="0.12309">
        <ele>837.1</ele>
        <time>2017-07-02T11:24:52Z</time>
      </trkpt>
      <trkpt lat="42.40287" lon="0.12307">
        <ele>837.1</ele>
        <time>2017-07-02T11:24:54Z</time>
      </trkpt>
      <trkpt lat="42.40291" lon="0.12306">
        <ele>837.1</ele>
        <time>2017-07-02T11:24:56Z</time>
      </trkpt>
      <trkpt lat="42.40295" lon="0.12305">
        <ele>837.1</ele>
        <time>2017-07-02T11:24:58Z</time>
      </trkpt>
      <trkpt lat="42.40298" lon="0.12303">
        <ele>837.1</ele>
        <time>2017-07-02T11:25:00Z</time>
      </trkpt>
      <trkpt lat="42.40302" lon="0.12299">
        <ele>837.1</ele>
        <time>2017-07-02T11:25:02Z</time>
      </trkpt>
      <trkpt lat="42.40303" lon="0.12296">
        <ele>837.1</ele>
        <time>2017-07-02T11:25:03Z</time>
      </trkpt>
      <trkpt lat="42.40307" lon="0.12292">
        <ele>837.1</ele>
        <time>2017-07-02T11:25:05Z</time>
      </trkpt>
      <trkpt lat="42.4031" lon="0.1229">
        <ele>837.1</ele>
        <time>2017-07-02T11:25:07Z</time>
      </trkpt>
      <trkpt lat="42.40314" lon="0.12287">
        <ele>837.1</ele>
        <time>2017-07-02T11:25:09Z</time>
      </trkpt>
      <trkpt lat="42.40319" lon="0.12283">
        <ele>837.1</ele>
        <time>2017-07-02T11:25:11Z</time>
      </trkpt>
      <trkpt lat="42.40321" lon="0.1228">
        <ele>837.1</ele>
        <time>2017-07-02T11:25:12Z</time>
      </trkpt>
      <trkpt lat="42.40323" lon="0.12277">
        <ele>837.1</ele>
        <time>2017-07-02T11:25:13Z</time>
      </trkpt>
      <trkpt lat="42.40324" lon="0.12273">
        <ele>837.1</ele>
        <time>2017-07-02T11:25:14Z</time>
      </trkpt>
      <trkpt lat="42.40327" lon="0.1227">
        <ele>837.1</ele>
        <time>2017-07-02T11:25:15Z</time>
      </trkpt>
      <trkpt lat="42.4033" lon="0.12268">
        <ele>837.1</ele>
        <time>2017-07-02T11:25:16Z</time>
      </trkpt>
      <trkpt lat="42.40333" lon="0.12266">
        <ele>837.1</ele>
        <time>2017-07-02T11:25:17Z</time>
      </trkpt>
      <trkpt lat="42.40336" lon="0.12266">
        <ele>837.1</ele>
        <time>2017-07-02T11:25:18Z</time>
      </trkpt>
      <trkpt lat="42.40339" lon="0.12266">
        <ele>837.1</ele>
        <time>2017-07-02T11:25:20Z</time>
      </trkpt>
      <trkpt lat="42.40342" lon="0.12265">
        <ele>837.1</ele>
        <time>2017-07-02T11:25:22Z</time>
      </trkpt>
      <trkpt lat="42.40345" lon="0.12262">
        <ele>837.1</ele>
        <time>2017-07-02T11:25:24Z</time>
      </trkpt>
      <trkpt lat="42.40349" lon="0.1226">
        <ele>837.1</ele>
        <time>2017-07-02T11:25:26Z</time>
      </trkpt>
      <trkpt lat="42.40353" lon="0.12257">
        <ele>837</ele>
        <time>2017-07-02T11:25:28Z</time>
      </trkpt>
      <trkpt lat="42.40357" lon="0.12254">
        <ele>837</ele>
        <time>2017-07-02T11:25:30Z</time>
      </trkpt>
      <trkpt lat="42.4036" lon="0.12252">
        <ele>837</ele>
        <time>2017-07-02T11:25:32Z</time>
      </trkpt>
      <trkpt lat="42.40364" lon="0.1225">
        <ele>837</ele>
        <time>2017-07-02T11:25:34Z</time>
      </trkpt>
      <trkpt lat="42.40367" lon="0.12248">
        <ele>836.9</ele>
        <time>2017-07-02T11:25:35Z</time>
      </trkpt>
      <trkpt lat="42.40369" lon="0.12247">
        <ele>836.9</ele>
        <time>2017-07-02T11:25:36Z</time>
      </trkpt>
      <trkpt lat="42.40373" lon="0.12243">
        <ele>836.8</ele>
        <time>2017-07-02T11:25:38Z</time>
      </trkpt>
      <trkpt lat="42.40376" lon="0.12238">
        <ele>836.7</ele>
        <time>2017-07-02T11:25:40Z</time>
      </trkpt>
      <trkpt lat="42.40378" lon="0.12235">
        <ele>836.6</ele>
        <time>2017-07-02T11:25:41Z</time>
      </trkpt>
      <trkpt lat="42.4038" lon="0.12231">
        <ele>836.3</ele>
        <time>2017-07-02T11:25:42Z</time>
      </trkpt>
      <trkpt lat="42.40382" lon="0.12228">
        <ele>835.9</ele>
        <time>2017-07-02T11:25:43Z</time>
      </trkpt>
      <trkpt lat="42.40385" lon="0.12225">
        <ele>835.5</ele>
        <time>2017-07-02T11:25:45Z</time>
      </trkpt>
      <trkpt lat="42.40389" lon="0.12221">
        <ele>835.2</ele>
        <time>2017-07-02T11:25:47Z</time>
      </trkpt>
      <trkpt lat="42.40392" lon="0.12219">
        <ele>835.1</ele>
        <time>2017-07-02T11:25:48Z</time>
      </trkpt>
      <trkpt lat="42.40395" lon="0.12218">
        <ele>835</ele>
        <time>2017-07-02T11:25:49Z</time>
      </trkpt>
      <trkpt lat="42.40399" lon="0.12216">
        <ele>834.8</ele>
        <time>2017-07-02T11:25:51Z</time>
      </trkpt>
      <trkpt lat="42.40403" lon="0.12211">
        <ele>834.7</ele>
        <time>2017-07-02T11:25:53Z</time>
      </trkpt>
      <trkpt lat="42.40405" lon="0.12209">
        <ele>834.6</ele>
        <time>2017-07-02T11:25:54Z</time>
      </trkpt>
      <trkpt lat="42.40407" lon="0.12206">
        <ele>834.5</ele>
        <time>2017-07-02T11:25:55Z</time>
      </trkpt>
      <trkpt lat="42.40409" lon="0.12202">
        <ele>834.4</ele>
        <time>2017-07-02T11:25:56Z</time>
      </trkpt>
      <trkpt lat="42.40411" lon="0.12199">
        <ele>834.4</ele>
        <time>2017-07-02T11:25:57Z</time>
      </trkpt>
      <trkpt lat="42.40414" lon="0.12196">
        <ele>834.3</ele>
        <time>2017-07-02T11:25:58Z</time>
      </trkpt>
      <trkpt lat="42.40417" lon="0.12194">
        <ele>834</ele>
        <time>2017-07-02T11:25:59Z</time>
      </trkpt>
      <trkpt lat="42.4042" lon="0.12193">
        <ele>833.8</ele>
        <time>2017-07-02T11:26:00Z</time>
      </trkpt>
      <trkpt lat="42.40425" lon="0.12192">
        <ele>833.3</ele>
        <time>2017-07-02T11:26:02Z</time>
      </trkpt>
      <trkpt lat="42.40428" lon="0.12192">
        <ele>833.1</ele>
        <time>2017-07-02T11:26:04Z</time>
      </trkpt>
      <trkpt lat="42.40431" lon="0.12186">
        <ele>832.9</ele>
        <time>2017-07-02T11:26:06Z</time>
      </trkpt>
      <trkpt lat="42.40433" lon="0.12182">
        <ele>832.8</ele>
        <time>2017-07-02T11:26:07Z</time>
      </trkpt>
      <trkpt lat="42.40434" lon="0.12178">
        <ele>832.8</ele>
        <time>2017-07-02T11:26:08Z</time>
      </trkpt>
      <trkpt lat="42.40436" lon="0.12175">
        <ele>832.7</ele>
        <time>2017-07-02T11:26:09Z</time>
      </trkpt>
      <trkpt lat="42.40439" lon="0.12171">
        <ele>832.6</ele>
        <time>2017-07-02T11:26:10Z</time>
      </trkpt>
      <trkpt lat="42.40443" lon="0.12168">
        <ele>832.4</ele>
        <time>2017-07-02T11:26:11Z</time>
      </trkpt>
      <trkpt lat="42.40445" lon="0.12164">
        <ele>832.3</ele>
        <time>2017-07-02T11:26:12Z</time>
      </trkpt>
      <trkpt lat="42.40448" lon="0.12161">
        <ele>832.2</ele>
        <time>2017-07-02T11:26:13Z</time>
      </trkpt>
      <trkpt lat="42.4045" lon="0.12158">
        <ele>832.1</ele>
        <time>2017-07-02T11:26:14Z</time>
      </trkpt>
      <trkpt lat="42.40453" lon="0.12155">
        <ele>832</ele>
        <time>2017-07-02T11:26:15Z</time>
      </trkpt>
      <trkpt lat="42.40456" lon="0.12153">
        <ele>831.8</ele>
        <time>2017-07-02T11:26:16Z</time>
      </trkpt>
      <trkpt lat="42.40461" lon="0.12151">
        <ele>831.5</ele>
        <time>2017-07-02T11:26:18Z</time>
      </trkpt>
      <trkpt lat="42.40466" lon="0.12149">
        <ele>831.1</ele>
        <time>2017-07-02T11:26:20Z</time>
      </trkpt>
      <trkpt lat="42.40468" lon="0.12148">
        <ele>830.9</ele>
        <time>2017-07-02T11:26:21Z</time>
      </trkpt>
      <trkpt lat="42.40472" lon="0.12145">
        <ele>830.6</ele>
        <time>2017-07-02T11:26:23Z</time>
      </trkpt>
      <trkpt lat="42.40475" lon="0.12143">
        <ele>830.6</ele>
        <time>2017-07-02T11:26:24Z</time>
      </trkpt>
      <trkpt lat="42.40477" lon="0.12141">
        <ele>830.5</ele>
        <time>2017-07-02T11:26:25Z</time>
      </trkpt>
      <trkpt lat="42.40481" lon="0.12137">
        <ele>830.4</ele>
        <time>2017-07-02T11:26:27Z</time>
      </trkpt>
      <trkpt lat="42.40484" lon="0.12135">
        <ele>830.4</ele>
        <time>2017-07-02T11:26:28Z</time>
      </trkpt>
      <trkpt lat="42.40487" lon="0.12132">
        <ele>830.4</ele>
        <time>2017-07-02T11:26:29Z</time>
      </trkpt>
      <trkpt lat="42.4049" lon="0.12129">
        <ele>830.4</ele>
        <time>2017-07-02T11:26:30Z</time>
      </trkpt>
      <trkpt lat="42.40492" lon="0.12127">
        <ele>830.4</ele>
        <time>2017-07-02T11:26:31Z</time>
      </trkpt>
      <trkpt lat="42.40495" lon="0.12124">
        <ele>830.3</ele>
        <time>2017-07-02T11:26:32Z</time>
      </trkpt>
      <trkpt lat="42.40497" lon="0.12122">
        <ele>830.3</ele>
        <time>2017-07-02T11:26:33Z</time>
      </trkpt>
      <trkpt lat="42.405" lon="0.12119">
        <ele>830.3</ele>
        <time>2017-07-02T11:26:34Z</time>
      </trkpt>
      <trkpt lat="42.40502" lon="0.12117">
        <ele>830.3</ele>
        <time>2017-07-02T11:26:35Z</time>
      </trkpt>
      <trkpt lat="42.40504" lon="0.12114">
        <ele>830.3</ele>
        <time>2017-07-02T11:26:36Z</time>
      </trkpt>
      <trkpt lat="42.40507" lon="0.12112">
        <ele>830.3</ele>
        <time>2017-07-02T11:26:37Z</time>
      </trkpt>
      <trkpt lat="42.40509" lon="0.12109">
        <ele>830.3</ele>
        <time>2017-07-02T11:26:38Z</time>
      </trkpt>
      <trkpt lat="42.40512" lon="0.12102">
        <ele>830.3</ele>
        <time>2017-07-02T11:26:40Z</time>
      </trkpt>
      <trkpt lat="42.40514" lon="0.12098">
        <ele>830.3</ele>
        <time>2017-07-02T11:26:41Z</time>
      </trkpt>
      <trkpt lat="42.40517" lon="0.12095">
        <ele>830.3</ele>
        <time>2017-07-02T11:26:42Z</time>
      </trkpt>
      <trkpt lat="42.40519" lon="0.12092">
        <ele>830.3</ele>
        <time>2017-07-02T11:26:43Z</time>
      </trkpt>
      <trkpt lat="42.40522" lon="0.1209">
        <ele>830.3</ele>
        <time>2017-07-02T11:26:44Z</time>
      </trkpt>
      <trkpt lat="42.40525" lon="0.12089">
        <ele>830.3</ele>
        <time>2017-07-02T11:26:45Z</time>
      </trkpt>
      <trkpt lat="42.40528" lon="0.12087">
        <ele>830.3</ele>
        <time>2017-07-02T11:26:46Z</time>
      </trkpt>
      <trkpt lat="42.40531" lon="0.12086">
        <ele>830.3</ele>
        <time>2017-07-02T11:26:47Z</time>
      </trkpt>
      <trkpt lat="42.40533" lon="0.12083">
        <ele>830.3</ele>
        <time>2017-07-02T11:26:48Z</time>
      </trkpt>
      <trkpt lat="42.40535" lon="0.1208">
        <ele>830.2</ele>
        <time>2017-07-02T11:26:49Z</time>
      </trkpt>
      <trkpt lat="42.40537" lon="0.12077">
        <ele>830.2</ele>
        <time>2017-07-02T11:26:50Z</time>
      </trkpt>
      <trkpt lat="42.40539" lon="0.12074">
        <ele>830.1</ele>
        <time>2017-07-02T11:26:51Z</time>
      </trkpt>
      <trkpt lat="42.4054" lon="0.12071">
        <ele>830.1</ele>
        <time>2017-07-02T11:26:52Z</time>
      </trkpt>
      <trkpt lat="42.40542" lon="0.12067">
        <ele>830</ele>
        <time>2017-07-02T11:26:53Z</time>
      </trkpt>
      <trkpt lat="42.40544" lon="0.12064">
        <ele>829.9</ele>
        <time>2017-07-02T11:26:54Z</time>
      </trkpt>
      <trkpt lat="42.40546" lon="0.12061">
        <ele>829.8</ele>
        <time>2017-07-02T11:26:55Z</time>
      </trkpt>
      <trkpt lat="42.40548" lon="0.12058">
        <ele>829.7</ele>
        <time>2017-07-02T11:26:56Z</time>
      </trkpt>
      <trkpt lat="42.40552" lon="0.12053">
        <ele>829.6</ele>
        <time>2017-07-02T11:26:58Z</time>
      </trkpt>
      <trkpt lat="42.40557" lon="0.12051">
        <ele>829.3</ele>
        <time>2017-07-02T11:27:00Z</time>
      </trkpt>
      <trkpt lat="42.40562" lon="0.12049">
        <ele>829</ele>
        <time>2017-07-02T11:27:02Z</time>
      </trkpt>
      <trkpt lat="42.40565" lon="0.12046">
        <ele>828.8</ele>
        <time>2017-07-02T11:27:04Z</time>
      </trkpt>
      <trkpt lat="42.40568" lon="0.12045">
        <ele>828.6</ele>
        <time>2017-07-02T11:27:07Z</time>
      </trkpt>
      <trkpt lat="42.4057" lon="0.12043">
        <ele>828.4</ele>
        <time>2017-07-02T11:27:11Z</time>
      </trkpt>
      <trkpt lat="42.40572" lon="0.12039">
        <ele>828.3</ele>
        <time>2017-07-02T11:27:16Z</time>
      </trkpt>
      <trkpt lat="42.40575" lon="0.12033">
        <ele>828.2</ele>
        <time>2017-07-02T11:27:18Z</time>
      </trkpt>
      <trkpt lat="42.40577" lon="0.12031">
        <ele>828.2</ele>
        <time>2017-07-02T11:27:19Z</time>
      </trkpt>
      <trkpt lat="42.40579" lon="0.12029">
        <ele>828.1</ele>
        <time>2017-07-02T11:27:20Z</time>
      </trkpt>
      <trkpt lat="42.40581" lon="0.12026">
        <ele>828.1</ele>
        <time>2017-07-02T11:27:21Z</time>
      </trkpt>
      <trkpt lat="42.40585" lon="0.12022">
        <ele>828.1</ele>
        <time>2017-07-02T11:27:23Z</time>
      </trkpt>
      <trkpt lat="42.40587" lon="0.1202">
        <ele>828.1</ele>
        <time>2017-07-02T11:27:24Z</time>
      </trkpt>
      <trkpt lat="42.40591" lon="0.12016">
        <ele>828.1</ele>
        <time>2017-07-02T11:27:26Z</time>
      </trkpt>
      <trkpt lat="42.40595" lon="0.12014">
        <ele>828</ele>
        <time>2017-07-02T11:27:28Z</time>
      </trkpt>
      <trkpt lat="42.406" lon="0.12013">
        <ele>828</ele>
        <time>2017-07-02T11:27:30Z</time>
      </trkpt>
      <trkpt lat="42.40603" lon="0.12013">
        <ele>828</ele>
        <time>2017-07-02T11:27:32Z</time>
      </trkpt>
      <trkpt lat="42.40606" lon="0.12013">
        <ele>828</ele>
        <time>2017-07-02T11:27:34Z</time>
      </trkpt>
      <trkpt lat="42.40609" lon="0.1201">
        <ele>828</ele>
        <time>2017-07-02T11:27:36Z</time>
      </trkpt>
      <trkpt lat="42.40613" lon="0.12008">
        <ele>828</ele>
        <time>2017-07-02T11:27:38Z</time>
      </trkpt>
      <trkpt lat="42.40616" lon="0.12007">
        <ele>828</ele>
        <time>2017-07-02T11:27:41Z</time>
      </trkpt>
      <trkpt lat="42.4062" lon="0.12005">
        <ele>828</ele>
        <time>2017-07-02T11:27:45Z</time>
      </trkpt>
      <trkpt lat="42.40623" lon="0.12003">
        <ele>828</ele>
        <time>2017-07-02T11:27:47Z</time>
      </trkpt>
      <trkpt lat="42.40626" lon="0.12">
        <ele>828</ele>
        <time>2017-07-02T11:27:49Z</time>
      </trkpt>
      <trkpt lat="42.40629" lon="0.11996">
        <ele>828</ele>
        <time>2017-07-02T11:27:51Z</time>
      </trkpt>
      <trkpt lat="42.40632" lon="0.11991">
        <ele>828</ele>
        <time>2017-07-02T11:27:53Z</time>
      </trkpt>
      <trkpt lat="42.40634" lon="0.11986">
        <ele>828</ele>
        <time>2017-07-02T11:27:55Z</time>
      </trkpt>
      <trkpt lat="42.40637" lon="0.11982">
        <ele>828</ele>
        <time>2017-07-02T11:27:57Z</time>
      </trkpt>
      <trkpt lat="42.40639" lon="0.11979">
        <ele>827.9</ele>
        <time>2017-07-02T11:27:58Z</time>
      </trkpt>
      <trkpt lat="42.40642" lon="0.11976">
        <ele>827.9</ele>
        <time>2017-07-02T11:27:59Z</time>
      </trkpt>
      <trkpt lat="42.40645" lon="0.11972">
        <ele>827.8</ele>
        <time>2017-07-02T11:28:00Z</time>
      </trkpt>
      <trkpt lat="42.40648" lon="0.11969">
        <ele>827.6</ele>
        <time>2017-07-02T11:28:01Z</time>
      </trkpt>
      <trkpt lat="42.40651" lon="0.11967">
        <ele>827.5</ele>
        <time>2017-07-02T11:28:02Z</time>
      </trkpt>
      <trkpt lat="42.40655" lon="0.11964">
        <ele>827.3</ele>
        <time>2017-07-02T11:28:04Z</time>
      </trkpt>
      <trkpt lat="42.40658" lon="0.1196">
        <ele>827</ele>
        <time>2017-07-02T11:28:06Z</time>
      </trkpt>
      <trkpt lat="42.40661" lon="0.11957">
        <ele>826.6</ele>
        <time>2017-07-02T11:28:08Z</time>
      </trkpt>
      <trkpt lat="42.40664" lon="0.11952">
        <ele>826.2</ele>
        <time>2017-07-02T11:28:10Z</time>
      </trkpt>
      <trkpt lat="42.40666" lon="0.11947">
        <ele>825.7</ele>
        <time>2017-07-02T11:28:12Z</time>
      </trkpt>
      <trkpt lat="42.40667" lon="0.11942">
        <ele>825.2</ele>
        <time>2017-07-02T11:28:14Z</time>
      </trkpt>
      <trkpt lat="42.40669" lon="0.11936">
        <ele>824.7</ele>
        <time>2017-07-02T11:28:16Z</time>
      </trkpt>
      <trkpt lat="42.4067" lon="0.11931">
        <ele>824.2</ele>
        <time>2017-07-02T11:28:18Z</time>
      </trkpt>
      <trkpt lat="42.40671" lon="0.11927">
        <ele>823.8</ele>
        <time>2017-07-02T11:28:20Z</time>
      </trkpt>
      <trkpt lat="42.40671" lon="0.11922">
        <ele>823.4</ele>
        <time>2017-07-02T11:28:22Z</time>
      </trkpt>
      <trkpt lat="42.40671" lon="0.11919">
        <ele>823.1</ele>
        <time>2017-07-02T11:28:25Z</time>
      </trkpt>
      <trkpt lat="42.40674" lon="0.11916">
        <ele>822.6</ele>
        <time>2017-07-02T11:28:28Z</time>
      </trkpt>
      <trkpt lat="42.40676" lon="0.11912">
        <ele>822.2</ele>
        <time>2017-07-02T11:28:30Z</time>
      </trkpt>
      <trkpt lat="42.40677" lon="0.11908">
        <ele>821.8</ele>
        <time>2017-07-02T11:28:32Z</time>
      </trkpt>
      <trkpt lat="42.40679" lon="0.11904">
        <ele>821.4</ele>
        <time>2017-07-02T11:28:34Z</time>
      </trkpt>
      <trkpt lat="42.40682" lon="0.11901">
        <ele>821</ele>
        <time>2017-07-02T11:28:36Z</time>
      </trkpt>
      <trkpt lat="42.40685" lon="0.119">
        <ele>820.6</ele>
        <time>2017-07-02T11:28:38Z</time>
      </trkpt>
      <trkpt lat="42.40686" lon="0.11905">
        <ele>820.1</ele>
        <time>2017-07-02T11:28:55Z</time>
      </trkpt>
      <trkpt lat="42.40689" lon="0.11896">
        <ele>819.3</ele>
        <time>2017-07-02T11:29:21Z</time>
      </trkpt>
      <trkpt lat="42.40691" lon="0.11893">
        <ele>818.3</ele>
        <time>2017-07-02T11:29:23Z</time>
      </trkpt>
      <trkpt lat="42.40693" lon="0.11888">
        <ele>817.2</ele>
        <time>2017-07-02T11:29:25Z</time>
      </trkpt>
      <trkpt lat="42.40694" lon="0.11883">
        <ele>816.9</ele>
        <time>2017-07-02T11:29:27Z</time>
      </trkpt>
      <trkpt lat="42.40694" lon="0.11879">
        <ele>816.6</ele>
        <time>2017-07-02T11:29:29Z</time>
      </trkpt>
      <trkpt lat="42.40697" lon="0.11871">
        <ele>815.9</ele>
        <time>2017-07-02T11:29:31Z</time>
      </trkpt>
      <trkpt lat="42.407" lon="0.11866">
        <ele>815.2</ele>
        <time>2017-07-02T11:29:32Z</time>
      </trkpt>
      <trkpt lat="42.40702" lon="0.1186">
        <ele>814.5</ele>
        <time>2017-07-02T11:29:33Z</time>
      </trkpt>
      <trkpt lat="42.40703" lon="0.11854">
        <ele>814.3</ele>
        <time>2017-07-02T11:29:34Z</time>
      </trkpt>
      <trkpt lat="42.40705" lon="0.11849">
        <ele>813.5</ele>
        <time>2017-07-02T11:29:35Z</time>
      </trkpt>
      <trkpt lat="42.40707" lon="0.11844">
        <ele>812.8</ele>
        <time>2017-07-02T11:29:36Z</time>
      </trkpt>
      <trkpt lat="42.40708" lon="0.1184">
        <ele>812</ele>
        <time>2017-07-02T11:29:37Z</time>
      </trkpt>
      <trkpt lat="42.40709" lon="0.11835">
        <ele>811.6</ele>
        <time>2017-07-02T11:29:38Z</time>
      </trkpt>
      <trkpt lat="42.40709" lon="0.11831">
        <ele>811.1</ele>
        <time>2017-07-02T11:29:39Z</time>
      </trkpt>
      <trkpt lat="42.40709" lon="0.11827">
        <ele>810.7</ele>
        <time>2017-07-02T11:29:40Z</time>
      </trkpt>
      <trkpt lat="42.4071" lon="0.11823">
        <ele>810.6</ele>
        <time>2017-07-02T11:29:41Z</time>
      </trkpt>
      <trkpt lat="42.40713" lon="0.11821">
        <ele>810.1</ele>
        <time>2017-07-02T11:29:42Z</time>
      </trkpt>
      <trkpt lat="42.40716" lon="0.1182">
        <ele>809.8</ele>
        <time>2017-07-02T11:29:43Z</time>
      </trkpt>
      <trkpt lat="42.40718" lon="0.11819">
        <ele>809.5</ele>
        <time>2017-07-02T11:29:44Z</time>
      </trkpt>
      <trkpt lat="42.40721" lon="0.11819">
        <ele>809.3</ele>
        <time>2017-07-02T11:29:45Z</time>
      </trkpt>
      <trkpt lat="42.40726" lon="0.11816">
        <ele>809</ele>
        <time>2017-07-02T11:29:47Z</time>
      </trkpt>
      <trkpt lat="42.40729" lon="0.11814">
        <ele>808.8</ele>
        <time>2017-07-02T11:29:48Z</time>
      </trkpt>
      <trkpt lat="42.40732" lon="0.11811">
        <ele>808.4</ele>
        <time>2017-07-02T11:29:50Z</time>
      </trkpt>
      <trkpt lat="42.40734" lon="0.11808">
        <ele>808</ele>
        <time>2017-07-02T11:29:52Z</time>
      </trkpt>
      <trkpt lat="42.40736" lon="0.11805">
        <ele>807.9</ele>
        <time>2017-07-02T11:29:53Z</time>
      </trkpt>
      <trkpt lat="42.40738" lon="0.11802">
        <ele>807.4</ele>
        <time>2017-07-02T11:29:54Z</time>
      </trkpt>
      <trkpt lat="42.40741" lon="0.11799">
        <ele>806.7</ele>
        <time>2017-07-02T11:29:55Z</time>
      </trkpt>
      <trkpt lat="42.40744" lon="0.11796">
        <ele>805.9</ele>
        <time>2017-07-02T11:29:56Z</time>
      </trkpt>
      <trkpt lat="42.40747" lon="0.11792">
        <ele>805.1</ele>
        <time>2017-07-02T11:29:57Z</time>
      </trkpt>
      <trkpt lat="42.40749" lon="0.11788">
        <ele>804.3</ele>
        <time>2017-07-02T11:29:58Z</time>
      </trkpt>
      <trkpt lat="42.40752" lon="0.11784">
        <ele>803.3</ele>
        <time>2017-07-02T11:29:59Z</time>
      </trkpt>
      <trkpt lat="42.40755" lon="0.1178">
        <ele>803.1</ele>
        <time>2017-07-02T11:30:00Z</time>
      </trkpt>
      <trkpt lat="42.40757" lon="0.11775">
        <ele>802.1</ele>
        <time>2017-07-02T11:30:01Z</time>
      </trkpt>
      <trkpt lat="42.40759" lon="0.11771">
        <ele>801</ele>
        <time>2017-07-02T11:30:02Z</time>
      </trkpt>
      <trkpt lat="42.40761" lon="0.11768">
        <ele>800.9</ele>
        <time>2017-07-02T11:30:03Z</time>
      </trkpt>
      <trkpt lat="42.40764" lon="0.11766">
        <ele>799.8</ele>
        <time>2017-07-02T11:30:04Z</time>
      </trkpt>
      <trkpt lat="42.40766" lon="0.11764">
        <ele>798.8</ele>
        <time>2017-07-02T11:30:05Z</time>
      </trkpt>
      <trkpt lat="42.40771" lon="0.11762">
        <ele>796.9</ele>
        <time>2017-07-02T11:30:07Z</time>
      </trkpt>
      <trkpt lat="42.40775" lon="0.1176">
        <ele>796</ele>
        <time>2017-07-02T11:30:09Z</time>
      </trkpt>
      <trkpt lat="42.40778" lon="0.11754">
        <ele>795.5</ele>
        <time>2017-07-02T11:30:11Z</time>
      </trkpt>
      <trkpt lat="42.4078" lon="0.1175">
        <ele>795</ele>
        <time>2017-07-02T11:30:13Z</time>
      </trkpt>
      <trkpt lat="42.40782" lon="0.11746">
        <ele>794.6</ele>
        <time>2017-07-02T11:30:16Z</time>
      </trkpt>
      <trkpt lat="42.40785" lon="0.11742">
        <ele>794.2</ele>
        <time>2017-07-02T11:30:19Z</time>
      </trkpt>
      <trkpt lat="42.40786" lon="0.11739">
        <ele>793.9</ele>
        <time>2017-07-02T11:30:20Z</time>
      </trkpt>
      <trkpt lat="42.40787" lon="0.11732">
        <ele>793.3</ele>
        <time>2017-07-02T11:30:22Z</time>
      </trkpt>
      <trkpt lat="42.40786" lon="0.11728">
        <ele>793</ele>
        <time>2017-07-02T11:30:23Z</time>
      </trkpt>
      <trkpt lat="42.40786" lon="0.11723">
        <ele>792.6</ele>
        <time>2017-07-02T11:30:24Z</time>
      </trkpt>
      <trkpt lat="42.40785" lon="0.11719">
        <ele>792.2</ele>
        <time>2017-07-02T11:30:25Z</time>
      </trkpt>
      <trkpt lat="42.40783" lon="0.11716">
        <ele>791.9</ele>
        <time>2017-07-02T11:30:26Z</time>
      </trkpt>
      <trkpt lat="42.40782" lon="0.11712">
        <ele>791.6</ele>
        <time>2017-07-02T11:30:27Z</time>
      </trkpt>
      <trkpt lat="42.40782" lon="0.11708">
        <ele>791.3</ele>
        <time>2017-07-02T11:30:28Z</time>
      </trkpt>
      <trkpt lat="42.40783" lon="0.11704">
        <ele>790.9</ele>
        <time>2017-07-02T11:30:29Z</time>
      </trkpt>
      <trkpt lat="42.40784" lon="0.11701">
        <ele>790.6</ele>
        <time>2017-07-02T11:30:30Z</time>
      </trkpt>
      <trkpt lat="42.40786" lon="0.11698">
        <ele>790.2</ele>
        <time>2017-07-02T11:30:31Z</time>
      </trkpt>
      <trkpt lat="42.40788" lon="0.11694">
        <ele>789.7</ele>
        <time>2017-07-02T11:30:32Z</time>
      </trkpt>
      <trkpt lat="42.4079" lon="0.11689">
        <ele>789.2</ele>
        <time>2017-07-02T11:30:33Z</time>
      </trkpt>
      <trkpt lat="42.40792" lon="0.11684">
        <ele>788.5</ele>
        <time>2017-07-02T11:30:34Z</time>
      </trkpt>
      <trkpt lat="42.40795" lon="0.11681">
        <ele>788</ele>
        <time>2017-07-02T11:30:35Z</time>
      </trkpt>
      <trkpt lat="42.40797" lon="0.11679">
        <ele>787.5</ele>
        <time>2017-07-02T11:30:36Z</time>
      </trkpt>
      <trkpt lat="42.408" lon="0.11677">
        <ele>787</ele>
        <time>2017-07-02T11:30:37Z</time>
      </trkpt>
      <trkpt lat="42.40803" lon="0.11675">
        <ele>786.5</ele>
        <time>2017-07-02T11:30:38Z</time>
      </trkpt>
      <trkpt lat="42.40806" lon="0.11672">
        <ele>785.9</ele>
        <time>2017-07-02T11:30:40Z</time>
      </trkpt>
      <trkpt lat="42.40804" lon="0.11667">
        <ele>785.1</ele>
        <time>2017-07-02T11:30:43Z</time>
      </trkpt>
      <trkpt lat="42.40804" lon="0.11661">
        <ele>784.3</ele>
        <time>2017-07-02T11:30:45Z</time>
      </trkpt>
      <trkpt lat="42.40806" lon="0.11657">
        <ele>783.8</ele>
        <time>2017-07-02T11:30:46Z</time>
      </trkpt>
      <trkpt lat="42.40808" lon="0.11654">
        <ele>783.3</ele>
        <time>2017-07-02T11:30:47Z</time>
      </trkpt>
      <trkpt lat="42.4081" lon="0.11651">
        <ele>782.5</ele>
        <time>2017-07-02T11:30:48Z</time>
      </trkpt>
      <trkpt lat="42.40813" lon="0.11648">
        <ele>781.9</ele>
        <time>2017-07-02T11:30:50Z</time>
      </trkpt>
      <trkpt lat="42.40815" lon="0.11645">
        <ele>781.5</ele>
        <time>2017-07-02T11:30:52Z</time>
      </trkpt>
      <trkpt lat="42.40818" lon="0.1164">
        <ele>780.9</ele>
        <time>2017-07-02T11:30:55Z</time>
      </trkpt>
      <trkpt lat="42.40821" lon="0.11635">
        <ele>780.1</ele>
        <time>2017-07-02T11:30:57Z</time>
      </trkpt>
      <trkpt lat="42.40824" lon="0.11629">
        <ele>779.3</ele>
        <time>2017-07-02T11:30:59Z</time>
      </trkpt>
      <trkpt lat="42.40826" lon="0.11622">
        <ele>778.4</ele>
        <time>2017-07-02T11:31:01Z</time>
      </trkpt>
      <trkpt lat="42.40828" lon="0.11619">
        <ele>777.9</ele>
        <time>2017-07-02T11:31:02Z</time>
      </trkpt>
      <trkpt lat="42.4083" lon="0.11615">
        <ele>777.4</ele>
        <time>2017-07-02T11:31:03Z</time>
      </trkpt>
      <trkpt lat="42.40832" lon="0.11612">
        <ele>776.9</ele>
        <time>2017-07-02T11:31:04Z</time>
      </trkpt>
      <trkpt lat="42.40835" lon="0.11607">
        <ele>776.1</ele>
        <time>2017-07-02T11:31:06Z</time>
      </trkpt>
      <trkpt lat="42.40836" lon="0.11604">
        <ele>775.6</ele>
        <time>2017-07-02T11:31:07Z</time>
      </trkpt>
      <trkpt lat="42.40837" lon="0.116">
        <ele>775</ele>
        <time>2017-07-02T11:31:08Z</time>
      </trkpt>
      <trkpt lat="42.40838" lon="0.11596">
        <ele>774.4</ele>
        <time>2017-07-02T11:31:09Z</time>
      </trkpt>
      <trkpt lat="42.40838" lon="0.11592">
        <ele>773.7</ele>
        <time>2017-07-02T11:31:10Z</time>
      </trkpt>
      <trkpt lat="42.40839" lon="0.11588">
        <ele>773</ele>
        <time>2017-07-02T11:31:12Z</time>
      </trkpt>
      <trkpt lat="42.40841" lon="0.11584">
        <ele>772.1</ele>
        <time>2017-07-02T11:31:14Z</time>
      </trkpt>
      <trkpt lat="42.40842" lon="0.11579">
        <ele>771.3</ele>
        <time>2017-07-02T11:31:16Z</time>
      </trkpt>
      <trkpt lat="42.40841" lon="0.11574">
        <ele>771</ele>
        <time>2017-07-02T11:31:18Z</time>
      </trkpt>
      <trkpt lat="42.40843" lon="0.11568">
        <ele>770.6</ele>
        <time>2017-07-02T11:31:20Z</time>
      </trkpt>
      <trkpt lat="42.40845" lon="0.11566">
        <ele>770.4</ele>
        <time>2017-07-02T11:31:21Z</time>
      </trkpt>
      <trkpt lat="42.40847" lon="0.11563">
        <ele>770</ele>
        <time>2017-07-02T11:31:22Z</time>
      </trkpt>
      <trkpt lat="42.40852" lon="0.1156">
        <ele>769.3</ele>
        <time>2017-07-02T11:31:24Z</time>
      </trkpt>
      <trkpt lat="42.40855" lon="0.11555">
        <ele>768.6</ele>
        <time>2017-07-02T11:31:26Z</time>
      </trkpt>
      <trkpt lat="42.40856" lon="0.11551">
        <ele>768.2</ele>
        <time>2017-07-02T11:31:27Z</time>
      </trkpt>
      <trkpt lat="42.40857" lon="0.11548">
        <ele>767.9</ele>
        <time>2017-07-02T11:31:28Z</time>
      </trkpt>
      <trkpt lat="42.40856" lon="0.11541">
        <ele>767.2</ele>
        <time>2017-07-02T11:31:30Z</time>
      </trkpt>
      <trkpt lat="42.40854" lon="0.11537">
        <ele>766.5</ele>
        <time>2017-07-02T11:31:32Z</time>
      </trkpt>
      <trkpt lat="42.40855" lon="0.11532">
        <ele>765.9</ele>
        <time>2017-07-02T11:31:34Z</time>
      </trkpt>
      <trkpt lat="42.40857" lon="0.11526">
        <ele>765</ele>
        <time>2017-07-02T11:31:36Z</time>
      </trkpt>
      <trkpt lat="42.4086" lon="0.11522">
        <ele>764.1</ele>
        <time>2017-07-02T11:31:38Z</time>
      </trkpt>
      <trkpt lat="42.40863" lon="0.11518">
        <ele>763.5</ele>
        <time>2017-07-02T11:31:40Z</time>
      </trkpt>
      <trkpt lat="42.40864" lon="0.11514">
        <ele>763</ele>
        <time>2017-07-02T11:31:42Z</time>
      </trkpt>
      <trkpt lat="42.40868" lon="0.11509">
        <ele>762.2</ele>
        <time>2017-07-02T11:31:44Z</time>
      </trkpt>
      <trkpt lat="42.40871" lon="0.11506">
        <ele>761.8</ele>
        <time>2017-07-02T11:31:45Z</time>
      </trkpt>
      <trkpt lat="42.40874" lon="0.11503">
        <ele>761.3</ele>
        <time>2017-07-02T11:31:46Z</time>
      </trkpt>
      <trkpt lat="42.40878" lon="0.115">
        <ele>760.8</ele>
        <time>2017-07-02T11:31:47Z</time>
      </trkpt>
      <trkpt lat="42.40881" lon="0.11497">
        <ele>760.3</ele>
        <time>2017-07-02T11:31:48Z</time>
      </trkpt>
      <trkpt lat="42.40883" lon="0.11493">
        <ele>760</ele>
        <time>2017-07-02T11:31:49Z</time>
      </trkpt>
      <trkpt lat="42.40885" lon="0.11489">
        <ele>759.6</ele>
        <time>2017-07-02T11:31:50Z</time>
      </trkpt>
      <trkpt lat="42.40887" lon="0.11484">
        <ele>759.3</ele>
        <time>2017-07-02T11:31:51Z</time>
      </trkpt>
      <trkpt lat="42.40889" lon="0.11479">
        <ele>758.9</ele>
        <time>2017-07-02T11:31:52Z</time>
      </trkpt>
      <trkpt lat="42.4089" lon="0.11475">
        <ele>758.5</ele>
        <time>2017-07-02T11:31:53Z</time>
      </trkpt>
      <trkpt lat="42.40892" lon="0.1147">
        <ele>758.2</ele>
        <time>2017-07-02T11:31:54Z</time>
      </trkpt>
      <trkpt lat="42.40893" lon="0.11466">
        <ele>757.9</ele>
        <time>2017-07-02T11:31:55Z</time>
      </trkpt>
      <trkpt lat="42.40895" lon="0.11462">
        <ele>757.6</ele>
        <time>2017-07-02T11:31:56Z</time>
      </trkpt>
      <trkpt lat="42.40896" lon="0.11459">
        <ele>757.3</ele>
        <time>2017-07-02T11:31:57Z</time>
      </trkpt>
      <trkpt lat="42.40898" lon="0.11455">
        <ele>756.9</ele>
        <time>2017-07-02T11:31:58Z</time>
      </trkpt>
      <trkpt lat="42.40899" lon="0.11452">
        <ele>756.7</ele>
        <time>2017-07-02T11:31:59Z</time>
      </trkpt>
      <trkpt lat="42.40898" lon="0.11445">
        <ele>756.1</ele>
        <time>2017-07-02T11:32:01Z</time>
      </trkpt>
      <trkpt lat="42.40896" lon="0.11441">
        <ele>755.7</ele>
        <time>2017-07-02T11:32:03Z</time>
      </trkpt>
      <trkpt lat="42.40898" lon="0.11437">
        <ele>755.4</ele>
        <time>2017-07-02T11:32:05Z</time>
      </trkpt>
      <trkpt lat="42.409" lon="0.11432">
        <ele>755</ele>
        <time>2017-07-02T11:32:07Z</time>
      </trkpt>
      <trkpt lat="42.409" lon="0.11429">
        <ele>754.7</ele>
        <time>2017-07-02T11:32:08Z</time>
      </trkpt>
      <trkpt lat="42.409" lon="0.11424">
        <ele>754.4</ele>
        <time>2017-07-02T11:32:09Z</time>
      </trkpt>
      <trkpt lat="42.409" lon="0.1142">
        <ele>754.1</ele>
        <time>2017-07-02T11:32:10Z</time>
      </trkpt>
      <trkpt lat="42.40901" lon="0.11415">
        <ele>753.6</ele>
        <time>2017-07-02T11:32:11Z</time>
      </trkpt>
      <trkpt lat="42.40903" lon="0.11411">
        <ele>753.2</ele>
        <time>2017-07-02T11:32:12Z</time>
      </trkpt>
      <trkpt lat="42.40905" lon="0.11408">
        <ele>752.8</ele>
        <time>2017-07-02T11:32:13Z</time>
      </trkpt>
      <trkpt lat="42.40907" lon="0.11405">
        <ele>752.4</ele>
        <time>2017-07-02T11:32:14Z</time>
      </trkpt>
      <trkpt lat="42.40909" lon="0.11401">
        <ele>752</ele>
        <time>2017-07-02T11:32:15Z</time>
      </trkpt>
      <trkpt lat="42.40911" lon="0.11397">
        <ele>751.3</ele>
        <time>2017-07-02T11:32:16Z</time>
      </trkpt>
      <trkpt lat="42.40912" lon="0.11392">
        <ele>750.6</ele>
        <time>2017-07-02T11:32:17Z</time>
      </trkpt>
      <trkpt lat="42.40912" lon="0.11387">
        <ele>749.7</ele>
        <time>2017-07-02T11:32:18Z</time>
      </trkpt>
      <trkpt lat="42.4091" lon="0.11381">
        <ele>748.9</ele>
        <time>2017-07-02T11:32:19Z</time>
      </trkpt>
      <trkpt lat="42.40908" lon="0.11377">
        <ele>748.1</ele>
        <time>2017-07-02T11:32:20Z</time>
      </trkpt>
      <trkpt lat="42.40905" lon="0.11374">
        <ele>747.4</ele>
        <time>2017-07-02T11:32:21Z</time>
      </trkpt>
      <trkpt lat="42.40902" lon="0.11372">
        <ele>746.8</ele>
        <time>2017-07-02T11:32:22Z</time>
      </trkpt>
      <trkpt lat="42.40899" lon="0.11368">
        <ele>746.2</ele>
        <time>2017-07-02T11:32:24Z</time>
      </trkpt>
      <trkpt lat="42.409" lon="0.11364">
        <ele>745.6</ele>
        <time>2017-07-02T11:32:25Z</time>
      </trkpt>
      <trkpt lat="42.40901" lon="0.11359">
        <ele>745</ele>
        <time>2017-07-02T11:32:26Z</time>
      </trkpt>
      <trkpt lat="42.40903" lon="0.11356">
        <ele>744.5</ele>
        <time>2017-07-02T11:32:27Z</time>
      </trkpt>
      <trkpt lat="42.40906" lon="0.11352">
        <ele>743.8</ele>
        <time>2017-07-02T11:32:29Z</time>
      </trkpt>
      <trkpt lat="42.40908" lon="0.11349">
        <ele>743.3</ele>
        <time>2017-07-02T11:32:30Z</time>
      </trkpt>
      <trkpt lat="42.40911" lon="0.11346">
        <ele>742.7</ele>
        <time>2017-07-02T11:32:31Z</time>
      </trkpt>
      <trkpt lat="42.40914" lon="0.11342">
        <ele>741.8</ele>
        <time>2017-07-02T11:32:32Z</time>
      </trkpt>
      <trkpt lat="42.40916" lon="0.11338">
        <ele>741</ele>
        <time>2017-07-02T11:32:33Z</time>
      </trkpt>
      <trkpt lat="42.40917" lon="0.11334">
        <ele>740.2</ele>
        <time>2017-07-02T11:32:34Z</time>
      </trkpt>
      <trkpt lat="42.40917" lon="0.1133">
        <ele>739.5</ele>
        <time>2017-07-02T11:32:35Z</time>
      </trkpt>
      <trkpt lat="42.40919" lon="0.11324">
        <ele>738.3</ele>
        <time>2017-07-02T11:32:37Z</time>
      </trkpt>
      <trkpt lat="42.4092" lon="0.1132">
        <ele>737.7</ele>
        <time>2017-07-02T11:32:39Z</time>
      </trkpt>
      <trkpt lat="42.40919" lon="0.11314">
        <ele>736.8</ele>
        <time>2017-07-02T11:32:41Z</time>
      </trkpt>
      <trkpt lat="42.40921" lon="0.11308">
        <ele>735.9</ele>
        <time>2017-07-02T11:32:43Z</time>
      </trkpt>
      <trkpt lat="42.40923" lon="0.11305">
        <ele>735.4</ele>
        <time>2017-07-02T11:32:44Z</time>
      </trkpt>
      <trkpt lat="42.40926" lon="0.11299">
        <ele>734.2</ele>
        <time>2017-07-02T11:32:46Z</time>
      </trkpt>
      <trkpt lat="42.40928" lon="0.11295">
        <ele>733.5</ele>
        <time>2017-07-02T11:32:47Z</time>
      </trkpt>
      <trkpt lat="42.4093" lon="0.11291">
        <ele>732.7</ele>
        <time>2017-07-02T11:32:48Z</time>
      </trkpt>
      <trkpt lat="42.4093" lon="0.11285">
        <ele>731.5</ele>
        <time>2017-07-02T11:32:50Z</time>
      </trkpt>
      <trkpt lat="42.40929" lon="0.11281">
        <ele>730.8</ele>
        <time>2017-07-02T11:32:51Z</time>
      </trkpt>
      <trkpt lat="42.40927" lon="0.11279">
        <ele>730</ele>
        <time>2017-07-02T11:32:52Z</time>
      </trkpt>
      <trkpt lat="42.40925" lon="0.11276">
        <ele>729.1</ele>
        <time>2017-07-02T11:32:53Z</time>
      </trkpt>
      <trkpt lat="42.40923" lon="0.11273">
        <ele>728.3</ele>
        <time>2017-07-02T11:32:54Z</time>
      </trkpt>
      <trkpt lat="42.40921" lon="0.11269">
        <ele>727.4</ele>
        <time>2017-07-02T11:32:55Z</time>
      </trkpt>
      <trkpt lat="42.4092" lon="0.11265">
        <ele>726.5</ele>
        <time>2017-07-02T11:32:56Z</time>
      </trkpt>
      <trkpt lat="42.40921" lon="0.11259">
        <ele>725.3</ele>
        <time>2017-07-02T11:32:58Z</time>
      </trkpt>
      <trkpt lat="42.40922" lon="0.11254">
        <ele>724.3</ele>
        <time>2017-07-02T11:33:00Z</time>
      </trkpt>
      <trkpt lat="42.40921" lon="0.11247">
        <ele>723.1</ele>
        <time>2017-07-02T11:33:02Z</time>
      </trkpt>
      <trkpt lat="42.40919" lon="0.11243">
        <ele>722.1</ele>
        <time>2017-07-02T11:33:04Z</time>
      </trkpt>
      <trkpt lat="42.40918" lon="0.11239">
        <ele>721.1</ele>
        <time>2017-07-02T11:33:06Z</time>
      </trkpt>
      <trkpt lat="42.40918" lon="0.11233">
        <ele>719.9</ele>
        <time>2017-07-02T11:33:08Z</time>
      </trkpt>
      <trkpt lat="42.40919" lon="0.11226">
        <ele>718.5</ele>
        <time>2017-07-02T11:33:10Z</time>
      </trkpt>
      <trkpt lat="42.40921" lon="0.11221">
        <ele>717.4</ele>
        <time>2017-07-02T11:33:12Z</time>
      </trkpt>
      <trkpt lat="42.40923" lon="0.11217">
        <ele>716.5</ele>
        <time>2017-07-02T11:33:14Z</time>
      </trkpt>
      <trkpt lat="42.40923" lon="0.11213">
        <ele>715.7</ele>
        <time>2017-07-02T11:33:16Z</time>
      </trkpt>
      <trkpt lat="42.40921" lon="0.11208">
        <ele>714.6</ele>
        <time>2017-07-02T11:33:18Z</time>
      </trkpt>
      <trkpt lat="42.40921" lon="0.11204">
        <ele>713.9</ele>
        <time>2017-07-02T11:33:19Z</time>
      </trkpt>
      <trkpt lat="42.40921" lon="0.112">
        <ele>713.2</ele>
        <time>2017-07-02T11:33:20Z</time>
      </trkpt>
      <trkpt lat="42.40923" lon="0.11195">
        <ele>712.1</ele>
        <time>2017-07-02T11:33:22Z</time>
      </trkpt>
      <trkpt lat="42.40919" lon="0.1119">
        <ele>710.7</ele>
        <time>2017-07-02T11:33:24Z</time>
      </trkpt>
      <trkpt lat="42.40915" lon="0.11187">
        <ele>709.3</ele>
        <time>2017-07-02T11:33:26Z</time>
      </trkpt>
      <trkpt lat="42.40913" lon="0.11181">
        <ele>707.8</ele>
        <time>2017-07-02T11:33:28Z</time>
      </trkpt>
      <trkpt lat="42.40912" lon="0.11176">
        <ele>706.7</ele>
        <time>2017-07-02T11:33:29Z</time>
      </trkpt>
      <trkpt lat="42.4091" lon="0.11172">
        <ele>705.9</ele>
        <time>2017-07-02T11:33:30Z</time>
      </trkpt>
      <trkpt lat="42.40907" lon="0.11169">
        <ele>705.4</ele>
        <time>2017-07-02T11:33:31Z</time>
      </trkpt>
      <trkpt lat="42.40905" lon="0.11166">
        <ele>705.2</ele>
        <time>2017-07-02T11:33:32Z</time>
      </trkpt>
      <trkpt lat="42.409" lon="0.11163">
        <ele>704.8</ele>
        <time>2017-07-02T11:33:34Z</time>
      </trkpt>
      <trkpt lat="42.40897" lon="0.11162">
        <ele>704.5</ele>
        <time>2017-07-02T11:33:36Z</time>
      </trkpt>
      <trkpt lat="42.40894" lon="0.11162">
        <ele>704.3</ele>
        <time>2017-07-02T11:33:38Z</time>
      </trkpt>
      <trkpt lat="42.40892" lon="0.11158">
        <ele>704</ele>
        <time>2017-07-02T11:33:48Z</time>
      </trkpt>
      <trkpt lat="42.40891" lon="0.11155">
        <ele>703.7</ele>
        <time>2017-07-02T11:33:50Z</time>
      </trkpt>
      <trkpt lat="42.40889" lon="0.1115">
        <ele>703.1</ele>
        <time>2017-07-02T11:33:52Z</time>
      </trkpt>
      <trkpt lat="42.40891" lon="0.11143">
        <ele>702.3</ele>
        <time>2017-07-02T11:33:54Z</time>
      </trkpt>
      <trkpt lat="42.40892" lon="0.11139">
        <ele>701.8</ele>
        <time>2017-07-02T11:33:55Z</time>
      </trkpt>
      <trkpt lat="42.40892" lon="0.11134">
        <ele>701</ele>
        <time>2017-07-02T11:33:56Z</time>
      </trkpt>
      <trkpt lat="42.40892" lon="0.11129">
        <ele>700.2</ele>
        <time>2017-07-02T11:33:57Z</time>
      </trkpt>
      <trkpt lat="42.40891" lon="0.11125">
        <ele>699.4</ele>
        <time>2017-07-02T11:33:58Z</time>
      </trkpt>
      <trkpt lat="42.40887" lon="0.11119">
        <ele>698.3</ele>
        <time>2017-07-02T11:34:00Z</time>
      </trkpt>
      <trkpt lat="42.40885" lon="0.11116">
        <ele>697.6</ele>
        <time>2017-07-02T11:34:01Z</time>
      </trkpt>
      <trkpt lat="42.40881" lon="0.11113">
        <ele>696.5</ele>
        <time>2017-07-02T11:34:03Z</time>
      </trkpt>
      <trkpt lat="42.40878" lon="0.11109">
        <ele>695.6</ele>
        <time>2017-07-02T11:34:05Z</time>
      </trkpt>
      <trkpt lat="42.40876" lon="0.11106">
        <ele>695</ele>
        <time>2017-07-02T11:34:06Z</time>
      </trkpt>
      <trkpt lat="42.40874" lon="0.11103">
        <ele>694.5</ele>
        <time>2017-07-02T11:34:07Z</time>
      </trkpt>
      <trkpt lat="42.40872" lon="0.11101">
        <ele>694</ele>
        <time>2017-07-02T11:34:08Z</time>
      </trkpt>
      <trkpt lat="42.40869" lon="0.11098">
        <ele>693.5</ele>
        <time>2017-07-02T11:34:10Z</time>
      </trkpt>
      <trkpt lat="42.40867" lon="0.11095">
        <ele>692.9</ele>
        <time>2017-07-02T11:34:12Z</time>
      </trkpt>
      <trkpt lat="42.40863" lon="0.11092">
        <ele>692.4</ele>
        <time>2017-07-02T11:34:14Z</time>
      </trkpt>
      <trkpt lat="42.40862" lon="0.11086">
        <ele>691.6</ele>
        <time>2017-07-02T11:34:16Z</time>
      </trkpt>
      <trkpt lat="42.40865" lon="0.1108">
        <ele>690.4</ele>
        <time>2017-07-02T11:34:18Z</time>
      </trkpt>
      <trkpt lat="42.40865" lon="0.11074">
        <ele>689</ele>
        <time>2017-07-02T11:34:20Z</time>
      </trkpt>
      <trkpt lat="42.40863" lon="0.1107">
        <ele>688</ele>
        <time>2017-07-02T11:34:21Z</time>
      </trkpt>
      <trkpt lat="42.40862" lon="0.11067">
        <ele>687.1</ele>
        <time>2017-07-02T11:34:22Z</time>
      </trkpt>
      <trkpt lat="42.40858" lon="0.11063">
        <ele>685.8</ele>
        <time>2017-07-02T11:34:24Z</time>
      </trkpt>
      <trkpt lat="42.40856" lon="0.11061">
        <ele>684.9</ele>
        <time>2017-07-02T11:34:26Z</time>
      </trkpt>
      <trkpt lat="42.40859" lon="0.1106">
        <ele>684</ele>
        <time>2017-07-02T11:34:45Z</time>
      </trkpt>
      <trkpt lat="42.40861" lon="0.11062">
        <ele>682.8</ele>
        <time>2017-07-02T11:35:08Z</time>
      </trkpt>
      <trkpt lat="42.40863" lon="0.11058">
        <ele>681.7</ele>
        <time>2017-07-02T11:35:13Z</time>
      </trkpt>
      <trkpt lat="42.40861" lon="0.11054">
        <ele>680.4</ele>
        <time>2017-07-02T11:35:18Z</time>
      </trkpt>
      <trkpt lat="42.4086" lon="0.1105">
        <ele>679.3</ele>
        <time>2017-07-02T11:35:26Z</time>
      </trkpt>
      <trkpt lat="42.40858" lon="0.11046">
        <ele>678</ele>
        <time>2017-07-02T11:35:28Z</time>
      </trkpt>
      <trkpt lat="42.40854" lon="0.1104">
        <ele>676.4</ele>
        <time>2017-07-02T11:35:30Z</time>
      </trkpt>
      <trkpt lat="42.40853" lon="0.11037">
        <ele>675.7</ele>
        <time>2017-07-02T11:35:31Z</time>
      </trkpt>
      <trkpt lat="42.40851" lon="0.11034">
        <ele>675</ele>
        <time>2017-07-02T11:35:32Z</time>
      </trkpt>
      <trkpt lat="42.40848" lon="0.11029">
        <ele>673.8</ele>
        <time>2017-07-02T11:35:34Z</time>
      </trkpt>
      <trkpt lat="42.40845" lon="0.11024">
        <ele>672.7</ele>
        <time>2017-07-02T11:35:36Z</time>
      </trkpt>
      <trkpt lat="42.40843" lon="0.1102">
        <ele>671.8</ele>
        <time>2017-07-02T11:35:38Z</time>
      </trkpt>
      <trkpt lat="42.40842" lon="0.11015">
        <ele>670.8</ele>
        <time>2017-07-02T11:35:40Z</time>
      </trkpt>
      <trkpt lat="42.40841" lon="0.11009">
        <ele>669.4</ele>
        <time>2017-07-02T11:35:42Z</time>
      </trkpt>
      <trkpt lat="42.4084" lon="0.11005">
        <ele>668.2</ele>
        <time>2017-07-02T11:35:43Z</time>
      </trkpt>
      <trkpt lat="42.4084" lon="0.11001">
        <ele>667</ele>
        <time>2017-07-02T11:35:44Z</time>
      </trkpt>
      <trkpt lat="42.40839" lon="0.10995">
        <ele>665.4</ele>
        <time>2017-07-02T11:35:46Z</time>
      </trkpt>
      <trkpt lat="42.4084" lon="0.10991">
        <ele>664.5</ele>
        <time>2017-07-02T11:35:51Z</time>
      </trkpt>
      <trkpt lat="42.40842" lon="0.10989">
        <ele>663.4</ele>
        <time>2017-07-02T11:35:57Z</time>
      </trkpt>
      <trkpt lat="42.40845" lon="0.10989">
        <ele>662.6</ele>
        <time>2017-07-02T11:36:04Z</time>
      </trkpt>
      <trkpt lat="42.40844" lon="0.10985">
        <ele>661.4</ele>
        <time>2017-07-02T11:36:07Z</time>
      </trkpt>
      <trkpt lat="42.40842" lon="0.1098">
        <ele>660.1</ele>
        <time>2017-07-02T11:36:09Z</time>
      </trkpt>
      <trkpt lat="42.40841" lon="0.10975">
        <ele>658.9</ele>
        <time>2017-07-02T11:36:11Z</time>
      </trkpt>
      <trkpt lat="42.40841" lon="0.1097">
        <ele>658.1</ele>
        <time>2017-07-02T11:36:13Z</time>
      </trkpt>
      <trkpt lat="42.4084" lon="0.10966">
        <ele>657.3</ele>
        <time>2017-07-02T11:36:15Z</time>
      </trkpt>
      <trkpt lat="42.40839" lon="0.10962">
        <ele>656.5</ele>
        <time>2017-07-02T11:36:18Z</time>
      </trkpt>
      <trkpt lat="42.40839" lon="0.10958">
        <ele>656</ele>
        <time>2017-07-02T11:36:20Z</time>
      </trkpt>
      <trkpt lat="42.40841" lon="0.10952">
        <ele>655.2</ele>
        <time>2017-07-02T11:36:22Z</time>
      </trkpt>
      <trkpt lat="42.40843" lon="0.10948">
        <ele>654.5</ele>
        <time>2017-07-02T11:36:24Z</time>
      </trkpt>
      <trkpt lat="42.40843" lon="0.10942">
        <ele>653.8</ele>
        <time>2017-07-02T11:36:26Z</time>
      </trkpt>
      <trkpt lat="42.40843" lon="0.10938">
        <ele>653.2</ele>
        <time>2017-07-02T11:36:27Z</time>
      </trkpt>
      <trkpt lat="42.40842" lon="0.10933">
        <ele>652.6</ele>
        <time>2017-07-02T11:36:28Z</time>
      </trkpt>
      <trkpt lat="42.40842" lon="0.10928">
        <ele>651.9</ele>
        <time>2017-07-02T11:36:29Z</time>
      </trkpt>
      <trkpt lat="42.40842" lon="0.10924">
        <ele>651.3</ele>
        <time>2017-07-02T11:36:30Z</time>
      </trkpt>
      <trkpt lat="42.40842" lon="0.1092">
        <ele>650.7</ele>
        <time>2017-07-02T11:36:31Z</time>
      </trkpt>
      <trkpt lat="42.40841" lon="0.10915">
        <ele>650</ele>
        <time>2017-07-02T11:36:32Z</time>
      </trkpt>
      <trkpt lat="42.40839" lon="0.1091">
        <ele>649.3</ele>
        <time>2017-07-02T11:36:33Z</time>
      </trkpt>
      <trkpt lat="42.40837" lon="0.10907">
        <ele>648.7</ele>
        <time>2017-07-02T11:36:34Z</time>
      </trkpt>
      <trkpt lat="42.40834" lon="0.10903">
        <ele>647.8</ele>
        <time>2017-07-02T11:36:35Z</time>
      </trkpt>
      <trkpt lat="42.40831" lon="0.109">
        <ele>647</ele>
        <time>2017-07-02T11:36:36Z</time>
      </trkpt>
      <trkpt lat="42.40828" lon="0.10898">
        <ele>646.3</ele>
        <time>2017-07-02T11:36:37Z</time>
      </trkpt>
      <trkpt lat="42.40825" lon="0.10894">
        <ele>645.4</ele>
        <time>2017-07-02T11:36:39Z</time>
      </trkpt>
      <trkpt lat="42.40824" lon="0.10888">
        <ele>644.5</ele>
        <time>2017-07-02T11:36:41Z</time>
      </trkpt>
      <trkpt lat="42.40823" lon="0.10884">
        <ele>643.9</ele>
        <time>2017-07-02T11:36:43Z</time>
      </trkpt>
      <trkpt lat="42.40818" lon="0.10881">
        <ele>642.9</ele>
        <time>2017-07-02T11:36:45Z</time>
      </trkpt>
      <trkpt lat="42.40814" lon="0.1088">
        <ele>642.2</ele>
        <time>2017-07-02T11:36:46Z</time>
      </trkpt>
      <trkpt lat="42.40811" lon="0.10879">
        <ele>641.7</ele>
        <time>2017-07-02T11:36:47Z</time>
      </trkpt>
      <trkpt lat="42.40808" lon="0.10873">
        <ele>640.6</ele>
        <time>2017-07-02T11:36:49Z</time>
      </trkpt>
      <trkpt lat="42.40807" lon="0.10867">
        <ele>639.7</ele>
        <time>2017-07-02T11:36:50Z</time>
      </trkpt>
      <trkpt lat="42.40808" lon="0.10863">
        <ele>638.9</ele>
        <time>2017-07-02T11:36:51Z</time>
      </trkpt>
      <trkpt lat="42.40808" lon="0.10857">
        <ele>637.8</ele>
        <time>2017-07-02T11:36:53Z</time>
      </trkpt>
      <trkpt lat="42.40809" lon="0.10851">
        <ele>636.6</ele>
        <time>2017-07-02T11:36:55Z</time>
      </trkpt>
      <trkpt lat="42.40811" lon="0.10846">
        <ele>635.4</ele>
        <time>2017-07-02T11:36:57Z</time>
      </trkpt>
      <trkpt lat="42.40819" lon="0.10828">
        <ele>629.7</ele>
        <time>2017-07-02T11:38:03Z</time>
      </trkpt>
      <trkpt lat="42.40821" lon="0.10826">
        <ele>628.7</ele>
        <time>2017-07-02T11:38:06Z</time>
      </trkpt>
      <trkpt lat="42.40824" lon="0.10824">
        <ele>627.5</ele>
        <time>2017-07-02T11:38:14Z</time>
      </trkpt>
      <trkpt lat="42.40826" lon="0.1082">
        <ele>626.5</ele>
        <time>2017-07-02T11:38:23Z</time>
      </trkpt>
      <trkpt lat="42.40826" lon="0.10817">
        <ele>625.4</ele>
        <time>2017-07-02T11:38:27Z</time>
      </trkpt>
      <trkpt lat="42.40827" lon="0.10813">
        <ele>624.1</ele>
        <time>2017-07-02T11:38:36Z</time>
      </trkpt>
      <trkpt lat="42.40825" lon="0.1081">
        <ele>623.2</ele>
        <time>2017-07-02T11:38:43Z</time>
      </trkpt>
      <trkpt lat="42.40825" lon="0.10806">
        <ele>622.1</ele>
        <time>2017-07-02T11:38:49Z</time>
      </trkpt>
      <trkpt lat="42.40825" lon="0.10802">
        <ele>620.9</ele>
        <time>2017-07-02T11:38:55Z</time>
      </trkpt>
      <trkpt lat="42.40826" lon="0.10798">
        <ele>619.8</ele>
        <time>2017-07-02T11:38:58Z</time>
      </trkpt>
      <trkpt lat="42.40827" lon="0.10794">
        <ele>618.9</ele>
        <time>2017-07-02T11:39:07Z</time>
      </trkpt>
      <trkpt lat="42.40829" lon="0.10791">
        <ele>617.9</ele>
        <time>2017-07-02T11:39:10Z</time>
      </trkpt>
      <trkpt lat="42.40832" lon="0.10788">
        <ele>616.9</ele>
        <time>2017-07-02T11:39:15Z</time>
      </trkpt>
      <trkpt lat="42.40833" lon="0.10784">
        <ele>616</ele>
        <time>2017-07-02T11:39:20Z</time>
      </trkpt>
      <trkpt lat="42.40837" lon="0.10782">
        <ele>614.8</ele>
        <time>2017-07-02T11:39:22Z</time>
      </trkpt>
      <trkpt lat="42.40839" lon="0.10777">
        <ele>613.5</ele>
        <time>2017-07-02T11:39:25Z</time>
      </trkpt>
      <trkpt lat="42.4084" lon="0.10771">
        <ele>612.4</ele>
        <time>2017-07-02T11:39:27Z</time>
      </trkpt>
      <trkpt lat="42.40841" lon="0.10765">
        <ele>611.3</ele>
        <time>2017-07-02T11:39:29Z</time>
      </trkpt>
      <trkpt lat="42.40841" lon="0.10761">
        <ele>610.6</ele>
        <time>2017-07-02T11:39:30Z</time>
      </trkpt>
      <trkpt lat="42.40842" lon="0.10755">
        <ele>609.4</ele>
        <time>2017-07-02T11:39:32Z</time>
      </trkpt>
      <trkpt lat="42.40843" lon="0.10751">
        <ele>608.6</ele>
        <time>2017-07-02T11:39:37Z</time>
      </trkpt>
      <trkpt lat="42.40842" lon="0.10748">
        <ele>607.9</ele>
        <time>2017-07-02T11:39:48Z</time>
      </trkpt>
      <trkpt lat="42.40844" lon="0.10744">
        <ele>607.2</ele>
        <time>2017-07-02T11:39:52Z</time>
      </trkpt>
      <trkpt lat="42.40847" lon="0.10742">
        <ele>606.4</ele>
        <time>2017-07-02T11:39:55Z</time>
      </trkpt>
      <trkpt lat="42.40851" lon="0.10739">
        <ele>605.3</ele>
        <time>2017-07-02T11:39:57Z</time>
      </trkpt>
      <trkpt lat="42.40853" lon="0.10736">
        <ele>604.6</ele>
        <time>2017-07-02T11:39:58Z</time>
      </trkpt>
      <trkpt lat="42.40855" lon="0.10732">
        <ele>603.8</ele>
        <time>2017-07-02T11:39:59Z</time>
      </trkpt>
      <trkpt lat="42.40856" lon="0.10729">
        <ele>603</ele>
        <time>2017-07-02T11:40:00Z</time>
      </trkpt>
      <trkpt lat="42.40859" lon="0.10725">
        <ele>601.8</ele>
        <time>2017-07-02T11:40:02Z</time>
      </trkpt>
      <trkpt lat="42.40865" lon="0.10722">
        <ele>600.3</ele>
        <time>2017-07-02T11:40:04Z</time>
      </trkpt>
      <trkpt lat="42.40867" lon="0.1072">
        <ele>599.5</ele>
        <time>2017-07-02T11:40:05Z</time>
      </trkpt>
      <trkpt lat="42.40869" lon="0.10718">
        <ele>598.8</ele>
        <time>2017-07-02T11:40:06Z</time>
      </trkpt>
      <trkpt lat="42.40872" lon="0.10713">
        <ele>597.5</ele>
        <time>2017-07-02T11:40:08Z</time>
      </trkpt>
      <trkpt lat="42.40875" lon="0.1071">
        <ele>596.7</ele>
        <time>2017-07-02T11:40:10Z</time>
      </trkpt>
      <trkpt lat="42.40876" lon="0.10705">
        <ele>595.7</ele>
        <time>2017-07-02T11:40:12Z</time>
      </trkpt>
      <trkpt lat="42.40874" lon="0.10699">
        <ele>594.6</ele>
        <time>2017-07-02T11:40:14Z</time>
      </trkpt>
      <trkpt lat="42.40872" lon="0.10693">
        <ele>593.5</ele>
        <time>2017-07-02T11:40:16Z</time>
      </trkpt>
      <trkpt lat="42.40871" lon="0.10688">
        <ele>592.7</ele>
        <time>2017-07-02T11:40:18Z</time>
      </trkpt>
      <trkpt lat="42.40873" lon="0.10683">
        <ele>591.5</ele>
        <time>2017-07-02T11:40:20Z</time>
      </trkpt>
      <trkpt lat="42.40874" lon="0.10677">
        <ele>590.4</ele>
        <time>2017-07-02T11:40:22Z</time>
      </trkpt>
      <trkpt lat="42.40874" lon="0.10673">
        <ele>589.2</ele>
        <time>2017-07-02T11:40:24Z</time>
      </trkpt>
      <trkpt lat="42.40877" lon="0.1067">
        <ele>587.7</ele>
        <time>2017-07-02T11:40:37Z</time>
      </trkpt>
      <trkpt lat="42.4088" lon="0.10673">
        <ele>586.9</ele>
        <time>2017-07-02T11:40:40Z</time>
      </trkpt>
      <trkpt lat="42.40881" lon="0.10679">
        <ele>586.1</ele>
        <time>2017-07-02T11:40:42Z</time>
      </trkpt>
      <trkpt lat="42.40883" lon="0.10684">
        <ele>585.4</ele>
        <time>2017-07-02T11:40:44Z</time>
      </trkpt>
      <trkpt lat="42.40883" lon="0.10689">
        <ele>584.9</ele>
        <time>2017-07-02T11:40:45Z</time>
      </trkpt>
      <trkpt lat="42.40884" lon="0.10693">
        <ele>584.3</ele>
        <time>2017-07-02T11:40:46Z</time>
      </trkpt>
      <trkpt lat="42.40885" lon="0.10699">
        <ele>583.6</ele>
        <time>2017-07-02T11:40:47Z</time>
      </trkpt>
      <trkpt lat="42.40886" lon="0.10704">
        <ele>583</ele>
        <time>2017-07-02T11:40:48Z</time>
      </trkpt>
      <trkpt lat="42.40888" lon="0.10709">
        <ele>582.2</ele>
        <time>2017-07-02T11:40:49Z</time>
      </trkpt>
      <trkpt lat="42.40889" lon="0.10714">
        <ele>581.4</ele>
        <time>2017-07-02T11:40:50Z</time>
      </trkpt>
      <trkpt lat="42.40891" lon="0.10718">
        <ele>580.6</ele>
        <time>2017-07-02T11:40:51Z</time>
      </trkpt>
      <trkpt lat="42.40892" lon="0.10722">
        <ele>579.7</ele>
        <time>2017-07-02T11:40:52Z</time>
      </trkpt>
      <trkpt lat="42.40894" lon="0.10725">
        <ele>578.9</ele>
        <time>2017-07-02T11:40:53Z</time>
      </trkpt>
      <trkpt lat="42.40896" lon="0.10728">
        <ele>577.9</ele>
        <time>2017-07-02T11:40:54Z</time>
      </trkpt>
      <trkpt lat="42.40898" lon="0.10731">
        <ele>577</ele>
        <time>2017-07-02T11:40:55Z</time>
      </trkpt>
      <trkpt lat="42.409" lon="0.10735">
        <ele>576</ele>
        <time>2017-07-02T11:40:57Z</time>
      </trkpt>
      <trkpt lat="42.40903" lon="0.10734">
        <ele>575.2</ele>
        <time>2017-07-02T11:40:59Z</time>
      </trkpt>
      <trkpt lat="42.40905" lon="0.10731">
        <ele>574.4</ele>
        <time>2017-07-02T11:41:00Z</time>
      </trkpt>
      <trkpt lat="42.40908" lon="0.10726">
        <ele>573.2</ele>
        <time>2017-07-02T11:41:01Z</time>
      </trkpt>
      <trkpt lat="42.4091" lon="0.10721">
        <ele>572.1</ele>
        <time>2017-07-02T11:41:02Z</time>
      </trkpt>
      <trkpt lat="42.40912" lon="0.10716">
        <ele>571.2</ele>
        <time>2017-07-02T11:41:03Z</time>
      </trkpt>
      <trkpt lat="42.40914" lon="0.10712">
        <ele>570.6</ele>
        <time>2017-07-02T11:41:04Z</time>
      </trkpt>
      <trkpt lat="42.40917" lon="0.1071">
        <ele>570.1</ele>
        <time>2017-07-02T11:41:05Z</time>
      </trkpt>
      <trkpt lat="42.40921" lon="0.10708">
        <ele>569.2</ele>
        <time>2017-07-02T11:41:07Z</time>
      </trkpt>
      <trkpt lat="42.40924" lon="0.10706">
        <ele>568.4</ele>
        <time>2017-07-02T11:41:09Z</time>
      </trkpt>
      <trkpt lat="42.40925" lon="0.10702">
        <ele>567.3</ele>
        <time>2017-07-02T11:41:10Z</time>
      </trkpt>
      <trkpt lat="42.40927" lon="0.10698">
        <ele>566.3</ele>
        <time>2017-07-02T11:41:11Z</time>
      </trkpt>
      <trkpt lat="42.40927" lon="0.10694">
        <ele>565.7</ele>
        <time>2017-07-02T11:41:12Z</time>
      </trkpt>
      <trkpt lat="42.40928" lon="0.10689">
        <ele>565.4</ele>
        <time>2017-07-02T11:41:13Z</time>
      </trkpt>
      <trkpt lat="42.40929" lon="0.10684">
        <ele>565.1</ele>
        <time>2017-07-02T11:41:14Z</time>
      </trkpt>
      <trkpt lat="42.40931" lon="0.10681">
        <ele>564.5</ele>
        <time>2017-07-02T11:41:15Z</time>
      </trkpt>
      <trkpt lat="42.40934" lon="0.10681">
        <ele>563.9</ele>
        <time>2017-07-02T11:41:18Z</time>
      </trkpt>
      <trkpt lat="42.4093" lon="0.10681">
        <ele>563.4</ele>
        <time>2017-07-02T11:41:24Z</time>
      </trkpt>
      <trkpt lat="42.40929" lon="0.10685">
        <ele>563.3</ele>
        <time>2017-07-02T11:41:29Z</time>
      </trkpt>
      <trkpt lat="42.40927" lon="0.10689">
        <ele>563.2</ele>
        <time>2017-07-02T11:41:32Z</time>
      </trkpt>
      <trkpt lat="42.40926" lon="0.10693">
        <ele>563.1</ele>
        <time>2017-07-02T11:41:53Z</time>
      </trkpt>
      <trkpt lat="42.40925" lon="0.10698">
        <ele>563.1</ele>
        <time>2017-07-02T11:41:56Z</time>
      </trkpt>
      <trkpt lat="42.40925" lon="0.10702">
        <ele>563.1</ele>
        <time>2017-07-02T11:41:59Z</time>
      </trkpt>
      <trkpt lat="42.40928" lon="0.10703">
        <ele>563.1</ele>
        <time>2017-07-02T11:42:32Z</time>
      </trkpt>
      <trkpt lat="42.40931" lon="0.10705">
        <ele>563.2</ele>
        <time>2017-07-02T11:42:34Z</time>
      </trkpt>
      <trkpt lat="42.40936" lon="0.10709">
        <ele>563.2</ele>
        <time>2017-07-02T11:43:25Z</time>
      </trkpt>
      <trkpt lat="42.40939" lon="0.10711">
        <ele>563.2</ele>
        <time>2017-07-02T11:43:28Z</time>
      </trkpt>
      <trkpt lat="42.40939" lon="0.10715">
        <ele>563.2</ele>
        <time>2017-07-02T11:43:31Z</time>
      </trkpt>
      <trkpt lat="42.40939" lon="0.10721">
        <ele>563.2</ele>
        <time>2017-07-02T11:43:33Z</time>
      </trkpt>
      <trkpt lat="42.40939" lon="0.10727">
        <ele>563.2</ele>
        <time>2017-07-02T11:43:35Z</time>
      </trkpt>
      <trkpt lat="42.4094" lon="0.10734">
        <ele>563.3</ele>
        <time>2017-07-02T11:43:37Z</time>
      </trkpt>
      <trkpt lat="42.4094" lon="0.10738">
        <ele>563.3</ele>
        <time>2017-07-02T11:43:38Z</time>
      </trkpt>
      <trkpt lat="42.4094" lon="0.10742">
        <ele>563.3</ele>
        <time>2017-07-02T11:43:39Z</time>
      </trkpt>
      <trkpt lat="42.4094" lon="0.10746">
        <ele>563.3</ele>
        <time>2017-07-02T11:43:40Z</time>
      </trkpt>
      <trkpt lat="42.4094" lon="0.1075">
        <ele>563.4</ele>
        <time>2017-07-02T11:43:41Z</time>
      </trkpt>
      <trkpt lat="42.40941" lon="0.10754">
        <ele>563.4</ele>
        <time>2017-07-02T11:43:42Z</time>
      </trkpt>
      <trkpt lat="42.40941" lon="0.10759">
        <ele>563.4</ele>
        <time>2017-07-02T11:43:43Z</time>
      </trkpt>
      <trkpt lat="42.40941" lon="0.10765">
        <ele>563.5</ele>
        <time>2017-07-02T11:43:45Z</time>
      </trkpt>
      <trkpt lat="42.40942" lon="0.1077">
        <ele>563.5</ele>
        <time>2017-07-02T11:43:47Z</time>
      </trkpt>
      <trkpt lat="42.40941" lon="0.10776">
        <ele>563.6</ele>
        <time>2017-07-02T11:43:49Z</time>
      </trkpt>
      <trkpt lat="42.40939" lon="0.10781">
        <ele>563.7</ele>
        <time>2017-07-02T11:43:51Z</time>
      </trkpt>
      <trkpt lat="42.40939" lon="0.10789">
        <ele>563.8</ele>
        <time>2017-07-02T11:43:53Z</time>
      </trkpt>
      <trkpt lat="42.4094" lon="0.10795">
        <ele>563.9</ele>
        <time>2017-07-02T11:43:54Z</time>
      </trkpt>
      <trkpt lat="42.40941" lon="0.10801">
        <ele>564.1</ele>
        <time>2017-07-02T11:43:55Z</time>
      </trkpt>
      <trkpt lat="42.40941" lon="0.10806">
        <ele>564.2</ele>
        <time>2017-07-02T11:43:56Z</time>
      </trkpt>
      <trkpt lat="42.40942" lon="0.10811">
        <ele>564.3</ele>
        <time>2017-07-02T11:43:57Z</time>
      </trkpt>
      <trkpt lat="42.40943" lon="0.10817">
        <ele>564.6</ele>
        <time>2017-07-02T11:43:58Z</time>
      </trkpt>
      <trkpt lat="42.40944" lon="0.10822">
        <ele>564.9</ele>
        <time>2017-07-02T11:43:59Z</time>
      </trkpt>
      <trkpt lat="42.40946" lon="0.10827">
        <ele>565.2</ele>
        <time>2017-07-02T11:44:00Z</time>
      </trkpt>
      <trkpt lat="42.40948" lon="0.10832">
        <ele>565.3</ele>
        <time>2017-07-02T11:44:01Z</time>
      </trkpt>
      <trkpt lat="42.4095" lon="0.10836">
        <ele>565.4</ele>
        <time>2017-07-02T11:44:02Z</time>
      </trkpt>
      <trkpt lat="42.40951" lon="0.1084">
        <ele>565.5</ele>
        <time>2017-07-02T11:44:03Z</time>
      </trkpt>
      <trkpt lat="42.40953" lon="0.10845">
        <ele>565.6</ele>
        <time>2017-07-02T11:44:04Z</time>
      </trkpt>
      <trkpt lat="42.40956" lon="0.10849">
        <ele>565.6</ele>
        <time>2017-07-02T11:44:05Z</time>
      </trkpt>
      <trkpt lat="42.40958" lon="0.10854">
        <ele>565.6</ele>
        <time>2017-07-02T11:44:06Z</time>
      </trkpt>
      <trkpt lat="42.40962" lon="0.10858">
        <ele>565.6</ele>
        <time>2017-07-02T11:44:07Z</time>
      </trkpt>
      <trkpt lat="42.40967" lon="0.10861">
        <ele>565.7</ele>
        <time>2017-07-02T11:44:08Z</time>
      </trkpt>
      <trkpt lat="42.40972" lon="0.10864">
        <ele>565.7</ele>
        <time>2017-07-02T11:44:09Z</time>
      </trkpt>
      <trkpt lat="42.40977" lon="0.10866">
        <ele>565.7</ele>
        <time>2017-07-02T11:44:10Z</time>
      </trkpt>
      <trkpt lat="42.40983" lon="0.10868">
        <ele>565.7</ele>
        <time>2017-07-02T11:44:11Z</time>
      </trkpt>
      <trkpt lat="42.40988" lon="0.10871">
        <ele>565.6</ele>
        <time>2017-07-02T11:44:12Z</time>
      </trkpt>
      <trkpt lat="42.40994" lon="0.10874">
        <ele>565.4</ele>
        <time>2017-07-02T11:44:13Z</time>
      </trkpt>
      <trkpt lat="42.40999" lon="0.10877">
        <ele>565.2</ele>
        <time>2017-07-02T11:44:14Z</time>
      </trkpt>
      <trkpt lat="42.41003" lon="0.10881">
        <ele>565.1</ele>
        <time>2017-07-02T11:44:15Z</time>
      </trkpt>
      <trkpt lat="42.41009" lon="0.10885">
        <ele>564.7</ele>
        <time>2017-07-02T11:44:16Z</time>
      </trkpt>
      <trkpt lat="42.41014" lon="0.1089">
        <ele>564.4</ele>
        <time>2017-07-02T11:44:17Z</time>
      </trkpt>
      <trkpt lat="42.4102" lon="0.10894">
        <ele>564.1</ele>
        <time>2017-07-02T11:44:18Z</time>
      </trkpt>
      <trkpt lat="42.41026" lon="0.10897">
        <ele>564</ele>
        <time>2017-07-02T11:44:19Z</time>
      </trkpt>
      <trkpt lat="42.41032" lon="0.10899">
        <ele>563.9</ele>
        <time>2017-07-02T11:44:20Z</time>
      </trkpt>
      <trkpt lat="42.41038" lon="0.109">
        <ele>563.8</ele>
        <time>2017-07-02T11:44:21Z</time>
      </trkpt>
      <trkpt lat="42.41047" lon="0.10898">
        <ele>563.7</ele>
        <time>2017-07-02T11:44:22Z</time>
      </trkpt>
      <trkpt lat="42.41053" lon="0.10898">
        <ele>563.7</ele>
        <time>2017-07-02T11:44:23Z</time>
      </trkpt>
      <trkpt lat="42.41057" lon="0.10898">
        <ele>563.7</ele>
        <time>2017-07-02T11:44:24Z</time>
      </trkpt>
      <trkpt lat="42.41062" lon="0.10899">
        <ele>563.7</ele>
        <time>2017-07-02T11:44:25Z</time>
      </trkpt>
      <trkpt lat="42.41069" lon="0.109">
        <ele>563.7</ele>
        <time>2017-07-02T11:44:26Z</time>
      </trkpt>
      <trkpt lat="42.41075" lon="0.10901">
        <ele>563.7</ele>
        <time>2017-07-02T11:44:27Z</time>
      </trkpt>
      <trkpt lat="42.41081" lon="0.10899">
        <ele>563.8</ele>
        <time>2017-07-02T11:44:28Z</time>
      </trkpt>
      <trkpt lat="42.41087" lon="0.10898">
        <ele>563.8</ele>
        <time>2017-07-02T11:44:29Z</time>
      </trkpt>
      <trkpt lat="42.41093" lon="0.10897">
        <ele>563.8</ele>
        <time>2017-07-02T11:44:30Z</time>
      </trkpt>
      <trkpt lat="42.41097" lon="0.10895">
        <ele>563.8</ele>
        <time>2017-07-02T11:44:31Z</time>
      </trkpt>
      <trkpt lat="42.41102" lon="0.10891">
        <ele>563.8</ele>
        <time>2017-07-02T11:44:32Z</time>
      </trkpt>
      <trkpt lat="42.41107" lon="0.10887">
        <ele>563.8</ele>
        <time>2017-07-02T11:44:33Z</time>
      </trkpt>
      <trkpt lat="42.4111" lon="0.10885">
        <ele>563.8</ele>
        <time>2017-07-02T11:44:34Z</time>
      </trkpt>
      <trkpt lat="42.41116" lon="0.10885">
        <ele>563.7</ele>
        <time>2017-07-02T11:44:35Z</time>
      </trkpt>
      <trkpt lat="42.41122" lon="0.10885">
        <ele>563.7</ele>
        <time>2017-07-02T11:44:36Z</time>
      </trkpt>
      <trkpt lat="42.41126" lon="0.10883">
        <ele>563.6</ele>
        <time>2017-07-02T11:44:37Z</time>
      </trkpt>
      <trkpt lat="42.41131" lon="0.10883">
        <ele>563.5</ele>
        <time>2017-07-02T11:44:38Z</time>
      </trkpt>
      <trkpt lat="42.41136" lon="0.10883">
        <ele>563.4</ele>
        <time>2017-07-02T11:44:39Z</time>
      </trkpt>
      <trkpt lat="42.41142" lon="0.1088">
        <ele>563.2</ele>
        <time>2017-07-02T11:44:40Z</time>
      </trkpt>
      <trkpt lat="42.41148" lon="0.10879">
        <ele>563</ele>
        <time>2017-07-02T11:44:41Z</time>
      </trkpt>
      <trkpt lat="42.41153" lon="0.10877">
        <ele>563</ele>
        <time>2017-07-02T11:44:42Z</time>
      </trkpt>
      <trkpt lat="42.41158" lon="0.10874">
        <ele>563.1</ele>
        <time>2017-07-02T11:44:43Z</time>
      </trkpt>
      <trkpt lat="42.41161" lon="0.1087">
        <ele>563.3</ele>
        <time>2017-07-02T11:44:44Z</time>
      </trkpt>
      <trkpt lat="42.41164" lon="0.10867">
        <ele>563.9</ele>
        <time>2017-07-02T11:44:45Z</time>
      </trkpt>
      <trkpt lat="42.41167" lon="0.10864">
        <ele>564.8</ele>
        <time>2017-07-02T11:44:46Z</time>
      </trkpt>
      <trkpt lat="42.4117" lon="0.10863">
        <ele>565.5</ele>
        <time>2017-07-02T11:44:58Z</time>
      </trkpt>
      <trkpt lat="42.41173" lon="0.10864">
        <ele>566</ele>
        <time>2017-07-02T11:45:03Z</time>
      </trkpt>
      <trkpt lat="42.41175" lon="0.10866">
        <ele>566.2</ele>
        <time>2017-07-02T11:45:07Z</time>
      </trkpt>
      <trkpt lat="42.41178" lon="0.10869">
        <ele>566.4</ele>
        <time>2017-07-02T11:45:10Z</time>
      </trkpt>
      <trkpt lat="42.41181" lon="0.10871">
        <ele>566.5</ele>
        <time>2017-07-02T11:45:14Z</time>
      </trkpt>
      <trkpt lat="42.41184" lon="0.10875">
        <ele>566.5</ele>
        <time>2017-07-02T11:45:17Z</time>
      </trkpt>
      <trkpt lat="42.41186" lon="0.10878">
        <ele>566.6</ele>
        <time>2017-07-02T11:45:19Z</time>
      </trkpt>
      <trkpt lat="42.41191" lon="0.10881">
        <ele>566.7</ele>
        <time>2017-07-02T11:45:21Z</time>
      </trkpt>
      <trkpt lat="42.41194" lon="0.10883">
        <ele>566.7</ele>
        <time>2017-07-02T11:45:22Z</time>
      </trkpt>
      <trkpt lat="42.41198" lon="0.10884">
        <ele>566.7</ele>
        <time>2017-07-02T11:45:23Z</time>
      </trkpt>
      <trkpt lat="42.41202" lon="0.10886">
        <ele>566.8</ele>
        <time>2017-07-02T11:45:24Z</time>
      </trkpt>
      <trkpt lat="42.41206" lon="0.10888">
        <ele>566.8</ele>
        <time>2017-07-02T11:45:25Z</time>
      </trkpt>
      <trkpt lat="42.41209" lon="0.1089">
        <ele>566.8</ele>
        <time>2017-07-02T11:45:26Z</time>
      </trkpt>
      <trkpt lat="42.41213" lon="0.10893">
        <ele>566.8</ele>
        <time>2017-07-02T11:45:27Z</time>
      </trkpt>
      <trkpt lat="42.41217" lon="0.10894">
        <ele>566.8</ele>
        <time>2017-07-02T11:45:28Z</time>
      </trkpt>
      <trkpt lat="42.4122" lon="0.10895">
        <ele>566.8</ele>
        <time>2017-07-02T11:45:29Z</time>
      </trkpt>
      <trkpt lat="42.41223" lon="0.10896">
        <ele>566.8</ele>
        <time>2017-07-02T11:45:30Z</time>
      </trkpt>
      <trkpt lat="42.41226" lon="0.10897">
        <ele>566.8</ele>
        <time>2017-07-02T11:45:31Z</time>
      </trkpt>
      <trkpt lat="42.41229" lon="0.10898">
        <ele>566.8</ele>
        <time>2017-07-02T11:45:32Z</time>
      </trkpt>
      <trkpt lat="42.41232" lon="0.109">
        <ele>566.8</ele>
        <time>2017-07-02T11:45:33Z</time>
      </trkpt>
      <trkpt lat="42.41236" lon="0.10903">
        <ele>566.8</ele>
        <time>2017-07-02T11:45:35Z</time>
      </trkpt>
      <trkpt lat="42.41239" lon="0.10906">
        <ele>566.8</ele>
        <time>2017-07-02T11:45:36Z</time>
      </trkpt>
      <trkpt lat="42.41242" lon="0.10908">
        <ele>566.7</ele>
        <time>2017-07-02T11:45:37Z</time>
      </trkpt>
      <trkpt lat="42.41245" lon="0.1091">
        <ele>566.7</ele>
        <time>2017-07-02T11:45:38Z</time>
      </trkpt>
      <trkpt lat="42.41248" lon="0.10911">
        <ele>566.6</ele>
        <time>2017-07-02T11:45:39Z</time>
      </trkpt>
      <trkpt lat="42.41254" lon="0.10911">
        <ele>566.4</ele>
        <time>2017-07-02T11:45:41Z</time>
      </trkpt>
      <trkpt lat="42.41257" lon="0.10912">
        <ele>566.4</ele>
        <time>2017-07-02T11:45:42Z</time>
      </trkpt>
      <trkpt lat="42.41261" lon="0.10914">
        <ele>566.1</ele>
        <time>2017-07-02T11:45:44Z</time>
      </trkpt>
      <trkpt lat="42.41266" lon="0.10916">
        <ele>565.9</ele>
        <time>2017-07-02T11:45:46Z</time>
      </trkpt>
      <trkpt lat="42.41269" lon="0.10915">
        <ele>565.7</ele>
        <time>2017-07-02T11:45:47Z</time>
      </trkpt>
      <trkpt lat="42.41271" lon="0.10915">
        <ele>565.6</ele>
        <time>2017-07-02T11:45:48Z</time>
      </trkpt>
      <trkpt lat="42.41275" lon="0.10918">
        <ele>565.4</ele>
        <time>2017-07-02T11:45:50Z</time>
      </trkpt>
      <trkpt lat="42.41275" lon="0.10923">
        <ele>565.4</ele>
        <time>2017-07-02T11:45:51Z</time>
      </trkpt>
      <trkpt lat="42.41276" lon="0.10929">
        <ele>565.3</ele>
        <time>2017-07-02T11:45:53Z</time>
      </trkpt>
      <trkpt lat="42.41278" lon="0.10932">
        <ele>565.3</ele>
        <time>2017-07-02T11:45:55Z</time>
      </trkpt>
      <trkpt lat="42.41282" lon="0.10934">
        <ele>565.2</ele>
        <time>2017-07-02T11:45:57Z</time>
      </trkpt>
      <trkpt lat="42.41285" lon="0.10935">
        <ele>565.2</ele>
        <time>2017-07-02T11:45:59Z</time>
      </trkpt>
      <trkpt lat="42.41288" lon="0.10936">
        <ele>565.2</ele>
        <time>2017-07-02T11:46:01Z</time>
      </trkpt>
      <trkpt lat="42.41292" lon="0.10941">
        <ele>565.1</ele>
        <time>2017-07-02T11:46:03Z</time>
      </trkpt>
      <trkpt lat="42.41295" lon="0.10945">
        <ele>565.1</ele>
        <time>2017-07-02T11:46:04Z</time>
      </trkpt>
      <trkpt lat="42.41298" lon="0.1095">
        <ele>565</ele>
        <time>2017-07-02T11:46:05Z</time>
      </trkpt>
      <trkpt lat="42.41301" lon="0.10953">
        <ele>564.9</ele>
        <time>2017-07-02T11:46:06Z</time>
      </trkpt>
      <trkpt lat="42.41304" lon="0.10956">
        <ele>564.8</ele>
        <time>2017-07-02T11:46:07Z</time>
      </trkpt>
      <trkpt lat="42.41307" lon="0.10959">
        <ele>564.7</ele>
        <time>2017-07-02T11:46:09Z</time>
      </trkpt>
      <trkpt lat="42.41309" lon="0.10962">
        <ele>564.5</ele>
        <time>2017-07-02T11:46:10Z</time>
      </trkpt>
      <trkpt lat="42.41311" lon="0.10966">
        <ele>564.3</ele>
        <time>2017-07-02T11:46:11Z</time>
      </trkpt>
      <trkpt lat="42.41313" lon="0.10969">
        <ele>564.1</ele>
        <time>2017-07-02T11:46:12Z</time>
      </trkpt>
      <trkpt lat="42.41315" lon="0.10972">
        <ele>564</ele>
        <time>2017-07-02T11:46:13Z</time>
      </trkpt>
      <trkpt lat="42.41318" lon="0.10977">
        <ele>563.7</ele>
        <time>2017-07-02T11:46:15Z</time>
      </trkpt>
      <trkpt lat="42.4132" lon="0.1098">
        <ele>563.5</ele>
        <time>2017-07-02T11:46:17Z</time>
      </trkpt>
      <trkpt lat="42.41324" lon="0.10986">
        <ele>563.3</ele>
        <time>2017-07-02T11:46:19Z</time>
      </trkpt>
      <trkpt lat="42.41326" lon="0.1099">
        <ele>563.2</ele>
        <time>2017-07-02T11:46:20Z</time>
      </trkpt>
      <trkpt lat="42.41329" lon="0.10994">
        <ele>563.1</ele>
        <time>2017-07-02T11:46:21Z</time>
      </trkpt>
      <trkpt lat="42.41331" lon="0.10997">
        <ele>562.9</ele>
        <time>2017-07-02T11:46:22Z</time>
      </trkpt>
      <trkpt lat="42.41333" lon="0.11">
        <ele>562.8</ele>
        <time>2017-07-02T11:46:23Z</time>
      </trkpt>
      <trkpt lat="42.41336" lon="0.11003">
        <ele>562.7</ele>
        <time>2017-07-02T11:46:24Z</time>
      </trkpt>
      <trkpt lat="42.41338" lon="0.11006">
        <ele>562.5</ele>
        <time>2017-07-02T11:46:25Z</time>
      </trkpt>
      <trkpt lat="42.4134" lon="0.11009">
        <ele>562.3</ele>
        <time>2017-07-02T11:46:26Z</time>
      </trkpt>
      <trkpt lat="42.41342" lon="0.11014">
        <ele>562</ele>
        <time>2017-07-02T11:46:27Z</time>
      </trkpt>
      <trkpt lat="42.41343" lon="0.11019">
        <ele>561.7</ele>
        <time>2017-07-02T11:46:28Z</time>
      </trkpt>
      <trkpt lat="42.41345" lon="0.11024">
        <ele>561.3</ele>
        <time>2017-07-02T11:46:29Z</time>
      </trkpt>
      <trkpt lat="42.41347" lon="0.11029">
        <ele>560.7</ele>
        <time>2017-07-02T11:46:30Z</time>
      </trkpt>
      <trkpt lat="42.41349" lon="0.11033">
        <ele>560.6</ele>
        <time>2017-07-02T11:46:31Z</time>
      </trkpt>
      <trkpt lat="42.41352" lon="0.11036">
        <ele>560.4</ele>
        <time>2017-07-02T11:46:32Z</time>
      </trkpt>
      <trkpt lat="42.41356" lon="0.11037">
        <ele>560.3</ele>
        <time>2017-07-02T11:46:33Z</time>
      </trkpt>
      <trkpt lat="42.41359" lon="0.11038">
        <ele>560.2</ele>
        <time>2017-07-02T11:46:34Z</time>
      </trkpt>
      <trkpt lat="42.41363" lon="0.1104">
        <ele>560.1</ele>
        <time>2017-07-02T11:46:35Z</time>
      </trkpt>
      <trkpt lat="42.41366" lon="0.11042">
        <ele>560</ele>
        <time>2017-07-02T11:46:36Z</time>
      </trkpt>
      <trkpt lat="42.41369" lon="0.11044">
        <ele>559.9</ele>
        <time>2017-07-02T11:46:37Z</time>
      </trkpt>
      <trkpt lat="42.41373" lon="0.11047">
        <ele>559.8</ele>
        <time>2017-07-02T11:46:38Z</time>
      </trkpt>
      <trkpt lat="42.41376" lon="0.11049">
        <ele>559.6</ele>
        <time>2017-07-02T11:46:39Z</time>
      </trkpt>
      <trkpt lat="42.41379" lon="0.11053">
        <ele>559.5</ele>
        <time>2017-07-02T11:46:40Z</time>
      </trkpt>
      <trkpt lat="42.41382" lon="0.11056">
        <ele>559.4</ele>
        <time>2017-07-02T11:46:41Z</time>
      </trkpt>
      <trkpt lat="42.41385" lon="0.1106">
        <ele>559.2</ele>
        <time>2017-07-02T11:46:42Z</time>
      </trkpt>
      <trkpt lat="42.41387" lon="0.11065">
        <ele>559.1</ele>
        <time>2017-07-02T11:46:43Z</time>
      </trkpt>
      <trkpt lat="42.4139" lon="0.11069">
        <ele>559</ele>
        <time>2017-07-02T11:46:44Z</time>
      </trkpt>
      <trkpt lat="42.41392" lon="0.11073">
        <ele>558.9</ele>
        <time>2017-07-02T11:46:45Z</time>
      </trkpt>
      <trkpt lat="42.41394" lon="0.11078">
        <ele>558.9</ele>
        <time>2017-07-02T11:46:46Z</time>
      </trkpt>
      <trkpt lat="42.41396" lon="0.11082">
        <ele>558.8</ele>
        <time>2017-07-02T11:46:47Z</time>
      </trkpt>
      <trkpt lat="42.41398" lon="0.11086">
        <ele>558.7</ele>
        <time>2017-07-02T11:46:48Z</time>
      </trkpt>
      <trkpt lat="42.414" lon="0.1109">
        <ele>558.6</ele>
        <time>2017-07-02T11:46:49Z</time>
      </trkpt>
      <trkpt lat="42.41402" lon="0.11093">
        <ele>558.5</ele>
        <time>2017-07-02T11:46:50Z</time>
      </trkpt>
      <trkpt lat="42.41404" lon="0.11096">
        <ele>558.4</ele>
        <time>2017-07-02T11:46:51Z</time>
      </trkpt>
      <trkpt lat="42.41407" lon="0.11101">
        <ele>558.3</ele>
        <time>2017-07-02T11:46:53Z</time>
      </trkpt>
      <trkpt lat="42.41409" lon="0.11105">
        <ele>558.3</ele>
        <time>2017-07-02T11:46:55Z</time>
      </trkpt>
      <trkpt lat="42.41412" lon="0.1111">
        <ele>558.3</ele>
        <time>2017-07-02T11:46:57Z</time>
      </trkpt>
      <trkpt lat="42.41413" lon="0.11115">
        <ele>558.4</ele>
        <time>2017-07-02T11:46:59Z</time>
      </trkpt>
      <trkpt lat="42.41414" lon="0.1112">
        <ele>558.4</ele>
        <time>2017-07-02T11:47:01Z</time>
      </trkpt>
      <trkpt lat="42.41415" lon="0.11125">
        <ele>558.5</ele>
        <time>2017-07-02T11:47:03Z</time>
      </trkpt>
      <trkpt lat="42.41415" lon="0.11129">
        <ele>558.5</ele>
        <time>2017-07-02T11:47:05Z</time>
      </trkpt>
      <trkpt lat="42.41414" lon="0.11134">
        <ele>558.6</ele>
        <time>2017-07-02T11:47:07Z</time>
      </trkpt>
      <trkpt lat="42.41413" lon="0.11139">
        <ele>558.5</ele>
        <time>2017-07-02T11:47:09Z</time>
      </trkpt>
      <trkpt lat="42.41412" lon="0.11144">
        <ele>558.4</ele>
        <time>2017-07-02T11:47:11Z</time>
      </trkpt>
      <trkpt lat="42.41411" lon="0.11149">
        <ele>558.2</ele>
        <time>2017-07-02T11:47:13Z</time>
      </trkpt>
      <trkpt lat="42.41409" lon="0.11155">
        <ele>558.1</ele>
        <time>2017-07-02T11:47:15Z</time>
      </trkpt>
      <trkpt lat="42.41407" lon="0.11161">
        <ele>558</ele>
        <time>2017-07-02T11:47:17Z</time>
      </trkpt>
      <trkpt lat="42.41406" lon="0.11167">
        <ele>557.9</ele>
        <time>2017-07-02T11:47:19Z</time>
      </trkpt>
      <trkpt lat="42.41406" lon="0.11172">
        <ele>557.8</ele>
        <time>2017-07-02T11:47:21Z</time>
      </trkpt>
      <trkpt lat="42.41407" lon="0.11177">
        <ele>557.8</ele>
        <time>2017-07-02T11:47:23Z</time>
      </trkpt>
      <trkpt lat="42.41408" lon="0.11181">
        <ele>557.9</ele>
        <time>2017-07-02T11:47:25Z</time>
      </trkpt>
      <trkpt lat="42.4141" lon="0.11179">
        <ele>558</ele>
        <time>2017-07-02T11:49:40Z</time>
      </trkpt>
      <trkpt lat="42.41411" lon="0.11175">
        <ele>558.3</ele>
        <time>2017-07-02T11:49:42Z</time>
      </trkpt>
      <trkpt lat="42.41412" lon="0.1117">
        <ele>559.2</ele>
        <time>2017-07-02T11:49:44Z</time>
      </trkpt>
      <trkpt lat="42.41413" lon="0.11164">
        <ele>560.4</ele>
        <time>2017-07-02T11:49:46Z</time>
      </trkpt>
      <trkpt lat="42.41413" lon="0.1116">
        <ele>561.2</ele>
        <time>2017-07-02T11:49:48Z</time>
      </trkpt>
      <trkpt lat="42.41414" lon="0.11157">
        <ele>562.1</ele>
        <time>2017-07-02T11:49:50Z</time>
      </trkpt>
      <trkpt lat="42.41417" lon="0.11153">
        <ele>563</ele>
        <time>2017-07-02T11:49:52Z</time>
      </trkpt>
      <trkpt lat="42.41419" lon="0.1115">
        <ele>563.9</ele>
        <time>2017-07-02T11:49:54Z</time>
      </trkpt>
      <trkpt lat="42.41422" lon="0.11147">
        <ele>564.7</ele>
        <time>2017-07-02T11:49:56Z</time>
      </trkpt>
      <trkpt lat="42.41424" lon="0.11145">
        <ele>565.4</ele>
        <time>2017-07-02T11:49:58Z</time>
      </trkpt>
      <trkpt lat="42.41426" lon="0.1114">
        <ele>566.3</ele>
        <time>2017-07-02T11:50:01Z</time>
      </trkpt>
      <trkpt lat="42.41428" lon="0.11137">
        <ele>567</ele>
        <time>2017-07-02T11:50:04Z</time>
      </trkpt>
      <trkpt lat="42.41429" lon="0.11133">
        <ele>567.9</ele>
        <time>2017-07-02T11:50:07Z</time>
      </trkpt>
      <trkpt lat="42.41431" lon="0.11128">
        <ele>568.8</ele>
        <time>2017-07-02T11:50:10Z</time>
      </trkpt>
      <trkpt lat="42.41432" lon="0.11125">
        <ele>569.4</ele>
        <time>2017-07-02T11:50:12Z</time>
      </trkpt>
      <trkpt lat="42.41432" lon="0.11121">
        <ele>570.2</ele>
        <time>2017-07-02T11:50:14Z</time>
      </trkpt>
      <trkpt lat="42.41433" lon="0.11117">
        <ele>571</ele>
        <time>2017-07-02T11:50:16Z</time>
      </trkpt>
      <trkpt lat="42.41435" lon="0.11112">
        <ele>572</ele>
        <time>2017-07-02T11:50:19Z</time>
      </trkpt>
      <trkpt lat="42.41436" lon="0.11108">
        <ele>573</ele>
        <time>2017-07-02T11:50:22Z</time>
      </trkpt>
      <trkpt lat="42.41438" lon="0.11104">
        <ele>574</ele>
        <time>2017-07-02T11:50:25Z</time>
      </trkpt>
      <trkpt lat="42.4144" lon="0.11101">
        <ele>574.7</ele>
        <time>2017-07-02T11:50:27Z</time>
      </trkpt>
      <trkpt lat="42.41443" lon="0.11097">
        <ele>575.7</ele>
        <time>2017-07-02T11:50:30Z</time>
      </trkpt>
      <trkpt lat="42.41445" lon="0.11094">
        <ele>576.7</ele>
        <time>2017-07-02T11:50:33Z</time>
      </trkpt>
      <trkpt lat="42.41448" lon="0.1109">
        <ele>577.7</ele>
        <time>2017-07-02T11:50:36Z</time>
      </trkpt>
      <trkpt lat="42.41451" lon="0.11087">
        <ele>578.7</ele>
        <time>2017-07-02T11:50:39Z</time>
      </trkpt>
      <trkpt lat="42.41454" lon="0.11085">
        <ele>579.5</ele>
        <time>2017-07-02T11:50:43Z</time>
      </trkpt>
      <trkpt lat="42.41456" lon="0.11082">
        <ele>580.3</ele>
        <time>2017-07-02T11:50:47Z</time>
      </trkpt>
      <trkpt lat="42.41458" lon="0.11079">
        <ele>581.1</ele>
        <time>2017-07-02T11:50:50Z</time>
      </trkpt>
      <trkpt lat="42.4146" lon="0.11077">
        <ele>581.8</ele>
        <time>2017-07-02T11:50:53Z</time>
      </trkpt>
      <trkpt lat="42.41462" lon="0.11074">
        <ele>582.4</ele>
        <time>2017-07-02T11:50:56Z</time>
      </trkpt>
      <trkpt lat="42.41465" lon="0.11072">
        <ele>583.2</ele>
        <time>2017-07-02T11:50:59Z</time>
      </trkpt>
      <trkpt lat="42.41467" lon="0.11069">
        <ele>584</ele>
        <time>2017-07-02T11:51:02Z</time>
      </trkpt>
      <trkpt lat="42.4147" lon="0.11066">
        <ele>584.7</ele>
        <time>2017-07-02T11:51:05Z</time>
      </trkpt>
      <trkpt lat="42.41472" lon="0.11062">
        <ele>585.6</ele>
        <time>2017-07-02T11:51:08Z</time>
      </trkpt>
      <trkpt lat="42.41474" lon="0.11058">
        <ele>586.5</ele>
        <time>2017-07-02T11:51:11Z</time>
      </trkpt>
      <trkpt lat="42.41476" lon="0.11054">
        <ele>587.3</ele>
        <time>2017-07-02T11:51:14Z</time>
      </trkpt>
      <trkpt lat="42.41478" lon="0.1105">
        <ele>588.1</ele>
        <time>2017-07-02T11:51:17Z</time>
      </trkpt>
      <trkpt lat="42.41481" lon="0.11048">
        <ele>588.9</ele>
        <time>2017-07-02T11:51:20Z</time>
      </trkpt>
      <trkpt lat="42.41484" lon="0.11046">
        <ele>589.7</ele>
        <time>2017-07-02T11:51:24Z</time>
      </trkpt>
      <trkpt lat="42.41485" lon="0.11042">
        <ele>590.4</ele>
        <time>2017-07-02T11:51:27Z</time>
      </trkpt>
      <trkpt lat="42.41486" lon="0.11038">
        <ele>591</ele>
        <time>2017-07-02T11:51:30Z</time>
      </trkpt>
      <trkpt lat="42.41488" lon="0.11035">
        <ele>591.6</ele>
        <time>2017-07-02T11:51:33Z</time>
      </trkpt>
      <trkpt lat="42.41489" lon="0.11029">
        <ele>592.3</ele>
        <time>2017-07-02T11:51:36Z</time>
      </trkpt>
      <trkpt lat="42.41489" lon="0.11025">
        <ele>592.8</ele>
        <time>2017-07-02T11:51:38Z</time>
      </trkpt>
      <trkpt lat="42.41489" lon="0.11021">
        <ele>593.4</ele>
        <time>2017-07-02T11:51:41Z</time>
      </trkpt>
      <trkpt lat="42.41487" lon="0.11016">
        <ele>594.1</ele>
        <time>2017-07-02T11:51:44Z</time>
      </trkpt>
      <trkpt lat="42.41487" lon="0.11011">
        <ele>594.6</ele>
        <time>2017-07-02T11:51:47Z</time>
      </trkpt>
      <trkpt lat="42.41485" lon="0.11007">
        <ele>595.2</ele>
        <time>2017-07-02T11:51:50Z</time>
      </trkpt>
      <trkpt lat="42.41484" lon="0.11003">
        <ele>595.8</ele>
        <time>2017-07-02T11:51:53Z</time>
      </trkpt>
      <trkpt lat="42.41483" lon="0.10999">
        <ele>596.2</ele>
        <time>2017-07-02T11:51:56Z</time>
      </trkpt>
      <trkpt lat="42.41482" lon="0.10995">
        <ele>596.6</ele>
        <time>2017-07-02T11:51:59Z</time>
      </trkpt>
      <trkpt lat="42.4148" lon="0.10992">
        <ele>596.9</ele>
        <time>2017-07-02T11:52:01Z</time>
      </trkpt>
      <trkpt lat="42.41478" lon="0.10987">
        <ele>597.5</ele>
        <time>2017-07-02T11:52:04Z</time>
      </trkpt>
      <trkpt lat="42.41475" lon="0.10983">
        <ele>598.4</ele>
        <time>2017-07-02T11:52:07Z</time>
      </trkpt>
      <trkpt lat="42.41473" lon="0.10981">
        <ele>599.1</ele>
        <time>2017-07-02T11:52:09Z</time>
      </trkpt>
      <trkpt lat="42.41471" lon="0.10979">
        <ele>600</ele>
        <time>2017-07-02T11:52:11Z</time>
      </trkpt>
      <trkpt lat="42.41468" lon="0.10976">
        <ele>601</ele>
        <time>2017-07-02T11:52:14Z</time>
      </trkpt>
      <trkpt lat="42.41466" lon="0.10973">
        <ele>601.6</ele>
        <time>2017-07-02T11:52:16Z</time>
      </trkpt>
      <trkpt lat="42.41464" lon="0.10968">
        <ele>602.3</ele>
        <time>2017-07-02T11:52:19Z</time>
      </trkpt>
      <trkpt lat="42.41463" lon="0.10965">
        <ele>602.8</ele>
        <time>2017-07-02T11:52:21Z</time>
      </trkpt>
      <trkpt lat="42.41462" lon="0.1096">
        <ele>603.4</ele>
        <time>2017-07-02T11:52:24Z</time>
      </trkpt>
      <trkpt lat="42.41461" lon="0.10956">
        <ele>603.9</ele>
        <time>2017-07-02T11:52:27Z</time>
      </trkpt>
      <trkpt lat="42.41459" lon="0.10951">
        <ele>604.5</ele>
        <time>2017-07-02T11:52:30Z</time>
      </trkpt>
      <trkpt lat="42.41458" lon="0.10947">
        <ele>604.9</ele>
        <time>2017-07-02T11:52:32Z</time>
      </trkpt>
      <trkpt lat="42.41457" lon="0.10942">
        <ele>605.6</ele>
        <time>2017-07-02T11:52:35Z</time>
      </trkpt>
      <trkpt lat="42.41455" lon="0.10937">
        <ele>606.4</ele>
        <time>2017-07-02T11:52:38Z</time>
      </trkpt>
      <trkpt lat="42.41455" lon="0.10933">
        <ele>607</ele>
        <time>2017-07-02T11:52:40Z</time>
      </trkpt>
      <trkpt lat="42.41454" lon="0.1093">
        <ele>607.6</ele>
        <time>2017-07-02T11:52:42Z</time>
      </trkpt>
      <trkpt lat="42.41454" lon="0.10925">
        <ele>608.3</ele>
        <time>2017-07-02T11:52:45Z</time>
      </trkpt>
      <trkpt lat="42.41453" lon="0.10921">
        <ele>608.9</ele>
        <time>2017-07-02T11:52:48Z</time>
      </trkpt>
      <trkpt lat="42.41453" lon="0.10917">
        <ele>609.6</ele>
        <time>2017-07-02T11:52:51Z</time>
      </trkpt>
      <trkpt lat="42.41452" lon="0.10912">
        <ele>610.5</ele>
        <time>2017-07-02T11:52:54Z</time>
      </trkpt>
      <trkpt lat="42.41452" lon="0.10908">
        <ele>611.3</ele>
        <time>2017-07-02T11:52:57Z</time>
      </trkpt>
      <trkpt lat="42.41453" lon="0.10904">
        <ele>612</ele>
        <time>2017-07-02T11:53:00Z</time>
      </trkpt>
      <trkpt lat="42.41455" lon="0.10899">
        <ele>613.6</ele>
        <time>2017-07-02T11:53:03Z</time>
      </trkpt>
      <trkpt lat="42.41458" lon="0.10896">
        <ele>614.9</ele>
        <time>2017-07-02T11:53:05Z</time>
      </trkpt>
      <trkpt lat="42.41458" lon="0.10891">
        <ele>615.8</ele>
        <time>2017-07-02T11:53:07Z</time>
      </trkpt>
      <trkpt lat="42.41458" lon="0.10888">
        <ele>616.6</ele>
        <time>2017-07-02T11:53:09Z</time>
      </trkpt>
      <trkpt lat="42.41459" lon="0.10884">
        <ele>617.3</ele>
        <time>2017-07-02T11:53:12Z</time>
      </trkpt>
      <trkpt lat="42.41461" lon="0.10881">
        <ele>617.9</ele>
        <time>2017-07-02T11:53:15Z</time>
      </trkpt>
      <trkpt lat="42.41465" lon="0.10878">
        <ele>618.4</ele>
        <time>2017-07-02T11:53:18Z</time>
      </trkpt>
      <trkpt lat="42.41467" lon="0.10876">
        <ele>618.7</ele>
        <time>2017-07-02T11:53:20Z</time>
      </trkpt>
      <trkpt lat="42.4147" lon="0.10874">
        <ele>618.9</ele>
        <time>2017-07-02T11:53:22Z</time>
      </trkpt>
      <trkpt lat="42.41472" lon="0.10872">
        <ele>619.1</ele>
        <time>2017-07-02T11:53:24Z</time>
      </trkpt>
      <trkpt lat="42.41475" lon="0.1087">
        <ele>619.3</ele>
        <time>2017-07-02T11:53:26Z</time>
      </trkpt>
      <trkpt lat="42.41477" lon="0.10868">
        <ele>619.6</ele>
        <time>2017-07-02T11:53:28Z</time>
      </trkpt>
      <trkpt lat="42.41479" lon="0.10865">
        <ele>619.8</ele>
        <time>2017-07-02T11:53:30Z</time>
      </trkpt>
      <trkpt lat="42.41481" lon="0.10862">
        <ele>620</ele>
        <time>2017-07-02T11:53:32Z</time>
      </trkpt>
      <trkpt lat="42.41483" lon="0.10859">
        <ele>620.2</ele>
        <time>2017-07-02T11:53:34Z</time>
      </trkpt>
      <trkpt lat="42.41485" lon="0.10857">
        <ele>620.4</ele>
        <time>2017-07-02T11:53:36Z</time>
      </trkpt>
      <trkpt lat="42.41488" lon="0.10854">
        <ele>620.5</ele>
        <time>2017-07-02T11:53:39Z</time>
      </trkpt>
      <trkpt lat="42.41489" lon="0.10849">
        <ele>620.6</ele>
        <time>2017-07-02T11:53:42Z</time>
      </trkpt>
      <trkpt lat="42.4149" lon="0.10844">
        <ele>622.6</ele>
        <time>2017-07-02T11:53:45Z</time>
      </trkpt>
      <trkpt lat="42.41487" lon="0.10841">
        <ele>623</ele>
        <time>2017-07-02T11:53:48Z</time>
      </trkpt>
      <trkpt lat="42.41484" lon="0.10841">
        <ele>623.2</ele>
        <time>2017-07-02T11:53:49Z</time>
      </trkpt>
      <trkpt lat="42.41481" lon="0.10842">
        <ele>623.5</ele>
        <time>2017-07-02T11:53:50Z</time>
      </trkpt>
      <trkpt lat="42.41478" lon="0.10843">
        <ele>623.8</ele>
        <time>2017-07-02T11:53:51Z</time>
      </trkpt>
      <trkpt lat="42.41473" lon="0.10844">
        <ele>624.2</ele>
        <time>2017-07-02T11:53:53Z</time>
      </trkpt>
      <trkpt lat="42.41469" lon="0.10845">
        <ele>624.6</ele>
        <time>2017-07-02T11:53:55Z</time>
      </trkpt>
      <trkpt lat="42.41465" lon="0.10846">
        <ele>624.9</ele>
        <time>2017-07-02T11:53:57Z</time>
      </trkpt>
      <trkpt lat="42.41462" lon="0.10846">
        <ele>625.2</ele>
        <time>2017-07-02T11:53:59Z</time>
      </trkpt>
      <trkpt lat="42.4146" lon="0.10846">
        <ele>625.4</ele>
        <time>2017-07-02T11:54:01Z</time>
      </trkpt>
      <trkpt lat="42.41456" lon="0.10846">
        <ele>625.7</ele>
        <time>2017-07-02T11:54:04Z</time>
      </trkpt>
      <trkpt lat="42.41454" lon="0.10847">
        <ele>625.9</ele>
        <time>2017-07-02T11:54:07Z</time>
      </trkpt>
      <trkpt lat="42.4145" lon="0.10846">
        <ele>626.2</ele>
        <time>2017-07-02T11:54:11Z</time>
      </trkpt>
      <trkpt lat="42.41448" lon="0.10847">
        <ele>626.5</ele>
        <time>2017-07-02T11:54:14Z</time>
      </trkpt>
      <trkpt lat="42.41444" lon="0.10846">
        <ele>626.7</ele>
        <time>2017-07-02T11:54:17Z</time>
      </trkpt>
      <trkpt lat="42.41442" lon="0.10845">
        <ele>627</ele>
        <time>2017-07-02T11:54:19Z</time>
      </trkpt>
      <trkpt lat="42.41438" lon="0.10844">
        <ele>627.3</ele>
        <time>2017-07-02T11:54:22Z</time>
      </trkpt>
      <trkpt lat="42.41435" lon="0.10843">
        <ele>627.5</ele>
        <time>2017-07-02T11:54:24Z</time>
      </trkpt>
      <trkpt lat="42.41432" lon="0.10842">
        <ele>627.7</ele>
        <time>2017-07-02T11:54:26Z</time>
      </trkpt>
      <trkpt lat="42.41429" lon="0.10842">
        <ele>628</ele>
        <time>2017-07-02T11:54:28Z</time>
      </trkpt>
      <trkpt lat="42.41426" lon="0.10841">
        <ele>628.2</ele>
        <time>2017-07-02T11:54:30Z</time>
      </trkpt>
      <trkpt lat="42.41422" lon="0.1084">
        <ele>628.5</ele>
        <time>2017-07-02T11:54:32Z</time>
      </trkpt>
      <trkpt lat="42.41419" lon="0.1084">
        <ele>628.7</ele>
        <time>2017-07-02T11:54:34Z</time>
      </trkpt>
      <trkpt lat="42.41414" lon="0.10839">
        <ele>629.1</ele>
        <time>2017-07-02T11:54:36Z</time>
      </trkpt>
      <trkpt lat="42.41411" lon="0.10838">
        <ele>629.3</ele>
        <time>2017-07-02T11:54:38Z</time>
      </trkpt>
      <trkpt lat="42.41408" lon="0.10837">
        <ele>629.6</ele>
        <time>2017-07-02T11:54:40Z</time>
      </trkpt>
      <trkpt lat="42.41405" lon="0.10835">
        <ele>629.8</ele>
        <time>2017-07-02T11:54:42Z</time>
      </trkpt>
      <trkpt lat="42.41402" lon="0.10833">
        <ele>630.1</ele>
        <time>2017-07-02T11:54:44Z</time>
      </trkpt>
      <trkpt lat="42.41399" lon="0.10831">
        <ele>630.3</ele>
        <time>2017-07-02T11:54:46Z</time>
      </trkpt>
      <trkpt lat="42.41396" lon="0.10829">
        <ele>630.5</ele>
        <time>2017-07-02T11:54:48Z</time>
      </trkpt>
      <trkpt lat="42.41393" lon="0.10827">
        <ele>630.7</ele>
        <time>2017-07-02T11:54:50Z</time>
      </trkpt>
      <trkpt lat="42.4139" lon="0.10824">
        <ele>630.9</ele>
        <time>2017-07-02T11:54:52Z</time>
      </trkpt>
      <trkpt lat="42.41387" lon="0.10822">
        <ele>631.2</ele>
        <time>2017-07-02T11:54:54Z</time>
      </trkpt>
      <trkpt lat="42.41384" lon="0.1082">
        <ele>631.4</ele>
        <time>2017-07-02T11:54:56Z</time>
      </trkpt>
      <trkpt lat="42.41381" lon="0.10817">
        <ele>631.6</ele>
        <time>2017-07-02T11:54:58Z</time>
      </trkpt>
      <trkpt lat="42.41378" lon="0.10814">
        <ele>631.8</ele>
        <time>2017-07-02T11:55:00Z</time>
      </trkpt>
      <trkpt lat="42.41376" lon="0.10812">
        <ele>632</ele>
        <time>2017-07-02T11:55:02Z</time>
      </trkpt>
      <trkpt lat="42.41374" lon="0.10809">
        <ele>632.1</ele>
        <time>2017-07-02T11:55:04Z</time>
      </trkpt>
      <trkpt lat="42.41371" lon="0.10807">
        <ele>632.3</ele>
        <time>2017-07-02T11:55:06Z</time>
      </trkpt>
      <trkpt lat="42.41369" lon="0.10804">
        <ele>632.5</ele>
        <time>2017-07-02T11:55:08Z</time>
      </trkpt>
      <trkpt lat="42.41366" lon="0.10801">
        <ele>632.7</ele>
        <time>2017-07-02T11:55:11Z</time>
      </trkpt>
      <trkpt lat="42.41364" lon="0.10798">
        <ele>632.9</ele>
        <time>2017-07-02T11:55:13Z</time>
      </trkpt>
      <trkpt lat="42.41362" lon="0.10795">
        <ele>633</ele>
        <time>2017-07-02T11:55:15Z</time>
      </trkpt>
      <trkpt lat="42.41359" lon="0.10792">
        <ele>633.2</ele>
        <time>2017-07-02T11:55:17Z</time>
      </trkpt>
      <trkpt lat="42.41356" lon="0.1079">
        <ele>633.4</ele>
        <time>2017-07-02T11:55:19Z</time>
      </trkpt>
      <trkpt lat="42.41353" lon="0.10788">
        <ele>633.6</ele>
        <time>2017-07-02T11:55:21Z</time>
      </trkpt>
      <trkpt lat="42.4135" lon="0.10785">
        <ele>633.8</ele>
        <time>2017-07-02T11:55:23Z</time>
      </trkpt>
      <trkpt lat="42.41348" lon="0.10782">
        <ele>634</ele>
        <time>2017-07-02T11:55:25Z</time>
      </trkpt>
      <trkpt lat="42.41345" lon="0.1078">
        <ele>634.2</ele>
        <time>2017-07-02T11:55:27Z</time>
      </trkpt>
      <trkpt lat="42.41342" lon="0.10777">
        <ele>634.4</ele>
        <time>2017-07-02T11:55:29Z</time>
      </trkpt>
      <trkpt lat="42.4134" lon="0.10774">
        <ele>634.6</ele>
        <time>2017-07-02T11:55:31Z</time>
      </trkpt>
      <trkpt lat="42.41338" lon="0.1077">
        <ele>634.9</ele>
        <time>2017-07-02T11:55:33Z</time>
      </trkpt>
      <trkpt lat="42.41336" lon="0.10766">
        <ele>635.1</ele>
        <time>2017-07-02T11:55:35Z</time>
      </trkpt>
      <trkpt lat="42.41333" lon="0.10762">
        <ele>635.4</ele>
        <time>2017-07-02T11:55:37Z</time>
      </trkpt>
      <trkpt lat="42.4133" lon="0.10758">
        <ele>635.6</ele>
        <time>2017-07-02T11:55:39Z</time>
      </trkpt>
      <trkpt lat="42.41327" lon="0.10755">
        <ele>635.9</ele>
        <time>2017-07-02T11:55:41Z</time>
      </trkpt>
      <trkpt lat="42.41324" lon="0.10752">
        <ele>636.2</ele>
        <time>2017-07-02T11:55:43Z</time>
      </trkpt>
      <trkpt lat="42.41321" lon="0.10748">
        <ele>636.5</ele>
        <time>2017-07-02T11:55:45Z</time>
      </trkpt>
      <trkpt lat="42.41318" lon="0.10744">
        <ele>636.8</ele>
        <time>2017-07-02T11:55:47Z</time>
      </trkpt>
      <trkpt lat="42.41315" lon="0.10741">
        <ele>637.1</ele>
        <time>2017-07-02T11:55:49Z</time>
      </trkpt>
      <trkpt lat="42.41312" lon="0.10738">
        <ele>637.3</ele>
        <time>2017-07-02T11:55:51Z</time>
      </trkpt>
      <trkpt lat="42.41309" lon="0.10735">
        <ele>637.6</ele>
        <time>2017-07-02T11:55:53Z</time>
      </trkpt>
      <trkpt lat="42.41306" lon="0.10733">
        <ele>637.8</ele>
        <time>2017-07-02T11:55:55Z</time>
      </trkpt>
      <trkpt lat="42.41303" lon="0.10731">
        <ele>638.1</ele>
        <time>2017-07-02T11:55:57Z</time>
      </trkpt>
      <trkpt lat="42.413" lon="0.10728">
        <ele>638.4</ele>
        <time>2017-07-02T11:55:59Z</time>
      </trkpt>
      <trkpt lat="42.41296" lon="0.10726">
        <ele>638.7</ele>
        <time>2017-07-02T11:56:01Z</time>
      </trkpt>
      <trkpt lat="42.41293" lon="0.10722">
        <ele>638.9</ele>
        <time>2017-07-02T11:56:03Z</time>
      </trkpt>
      <trkpt lat="42.41289" lon="0.10719">
        <ele>639.2</ele>
        <time>2017-07-02T11:56:05Z</time>
      </trkpt>
      <trkpt lat="42.41285" lon="0.10718">
        <ele>639.5</ele>
        <time>2017-07-02T11:56:07Z</time>
      </trkpt>
      <trkpt lat="42.41281" lon="0.10717">
        <ele>639.7</ele>
        <time>2017-07-02T11:56:09Z</time>
      </trkpt>
      <trkpt lat="42.41278" lon="0.10716">
        <ele>639.8</ele>
        <time>2017-07-02T11:56:11Z</time>
      </trkpt>
      <trkpt lat="42.41274" lon="0.10714">
        <ele>640</ele>
        <time>2017-07-02T11:56:13Z</time>
      </trkpt>
      <trkpt lat="42.41271" lon="0.10712">
        <ele>640.2</ele>
        <time>2017-07-02T11:56:15Z</time>
      </trkpt>
      <trkpt lat="42.41269" lon="0.1071">
        <ele>640.3</ele>
        <time>2017-07-02T11:56:17Z</time>
      </trkpt>
      <trkpt lat="42.41266" lon="0.10709">
        <ele>640.4</ele>
        <time>2017-07-02T11:56:19Z</time>
      </trkpt>
      <trkpt lat="42.41262" lon="0.10707">
        <ele>640.5</ele>
        <time>2017-07-02T11:56:21Z</time>
      </trkpt>
      <trkpt lat="42.41259" lon="0.10706">
        <ele>640.6</ele>
        <time>2017-07-02T11:56:23Z</time>
      </trkpt>
      <trkpt lat="42.41256" lon="0.10703">
        <ele>640.7</ele>
        <time>2017-07-02T11:56:25Z</time>
      </trkpt>
      <trkpt lat="42.41253" lon="0.10702">
        <ele>640.8</ele>
        <time>2017-07-02T11:56:27Z</time>
      </trkpt>
      <trkpt lat="42.41249" lon="0.10702">
        <ele>640.9</ele>
        <time>2017-07-02T11:56:29Z</time>
      </trkpt>
      <trkpt lat="42.41246" lon="0.10701">
        <ele>640.9</ele>
        <time>2017-07-02T11:56:31Z</time>
      </trkpt>
      <trkpt lat="42.41242" lon="0.107">
        <ele>641</ele>
        <time>2017-07-02T11:56:33Z</time>
      </trkpt>
      <trkpt lat="42.41239" lon="0.10699">
        <ele>641</ele>
        <time>2017-07-02T11:56:35Z</time>
      </trkpt>
      <trkpt lat="42.41236" lon="0.10698">
        <ele>641.1</ele>
        <time>2017-07-02T11:56:37Z</time>
      </trkpt>
      <trkpt lat="42.41232" lon="0.10696">
        <ele>641.1</ele>
        <time>2017-07-02T11:56:39Z</time>
      </trkpt>
      <trkpt lat="42.41229" lon="0.10695">
        <ele>641.1</ele>
        <time>2017-07-02T11:56:41Z</time>
      </trkpt>
      <trkpt lat="42.41225" lon="0.10693">
        <ele>641.1</ele>
        <time>2017-07-02T11:56:43Z</time>
      </trkpt>
      <trkpt lat="42.41221" lon="0.10691">
        <ele>641.2</ele>
        <time>2017-07-02T11:56:45Z</time>
      </trkpt>
      <trkpt lat="42.41217" lon="0.1069">
        <ele>641.2</ele>
        <time>2017-07-02T11:56:47Z</time>
      </trkpt>
      <trkpt lat="42.41213" lon="0.10688">
        <ele>641.2</ele>
        <time>2017-07-02T11:56:49Z</time>
      </trkpt>
      <trkpt lat="42.41209" lon="0.10684">
        <ele>641.2</ele>
        <time>2017-07-02T11:56:51Z</time>
      </trkpt>
      <trkpt lat="42.41205" lon="0.1068">
        <ele>641.3</ele>
        <time>2017-07-02T11:56:53Z</time>
      </trkpt>
      <trkpt lat="42.41202" lon="0.10675">
        <ele>641.3</ele>
        <time>2017-07-02T11:56:55Z</time>
      </trkpt>
      <trkpt lat="42.41199" lon="0.10669">
        <ele>641.3</ele>
        <time>2017-07-02T11:56:57Z</time>
      </trkpt>
      <trkpt lat="42.41198" lon="0.10662">
        <ele>641.4</ele>
        <time>2017-07-02T11:56:59Z</time>
      </trkpt>
      <trkpt lat="42.41197" lon="0.10658">
        <ele>641.4</ele>
        <time>2017-07-02T11:57:00Z</time>
      </trkpt>
      <trkpt lat="42.41197" lon="0.10654">
        <ele>641.4</ele>
        <time>2017-07-02T11:57:01Z</time>
      </trkpt>
      <trkpt lat="42.41197" lon="0.10651">
        <ele>641.4</ele>
        <time>2017-07-02T11:57:02Z</time>
      </trkpt>
      <trkpt lat="42.41197" lon="0.10647">
        <ele>641.5</ele>
        <time>2017-07-02T11:57:03Z</time>
      </trkpt>
      <trkpt lat="42.41197" lon="0.10643">
        <ele>641.5</ele>
        <time>2017-07-02T11:57:04Z</time>
      </trkpt>
      <trkpt lat="42.41198" lon="0.1064">
        <ele>641.5</ele>
        <time>2017-07-02T11:57:05Z</time>
      </trkpt>
      <trkpt lat="42.41198" lon="0.10636">
        <ele>641.5</ele>
        <time>2017-07-02T11:57:06Z</time>
      </trkpt>
      <trkpt lat="42.41198" lon="0.10632">
        <ele>641.5</ele>
        <time>2017-07-02T11:57:07Z</time>
      </trkpt>
      <trkpt lat="42.41198" lon="0.10628">
        <ele>641.5</ele>
        <time>2017-07-02T11:57:08Z</time>
      </trkpt>
      <trkpt lat="42.41199" lon="0.10624">
        <ele>641.5</ele>
        <time>2017-07-02T11:57:09Z</time>
      </trkpt>
      <trkpt lat="42.41199" lon="0.10621">
        <ele>641.6</ele>
        <time>2017-07-02T11:57:10Z</time>
      </trkpt>
      <trkpt lat="42.412" lon="0.10617">
        <ele>641.6</ele>
        <time>2017-07-02T11:57:11Z</time>
      </trkpt>
      <trkpt lat="42.412" lon="0.10614">
        <ele>641.7</ele>
        <time>2017-07-02T11:57:12Z</time>
      </trkpt>
      <trkpt lat="42.41201" lon="0.1061">
        <ele>641.8</ele>
        <time>2017-07-02T11:57:13Z</time>
      </trkpt>
      <trkpt lat="42.41201" lon="0.10603">
        <ele>642</ele>
        <time>2017-07-02T11:57:15Z</time>
      </trkpt>
      <trkpt lat="42.41201" lon="0.10599">
        <ele>642.1</ele>
        <time>2017-07-02T11:57:16Z</time>
      </trkpt>
      <trkpt lat="42.412" lon="0.10595">
        <ele>642.2</ele>
        <time>2017-07-02T11:57:17Z</time>
      </trkpt>
      <trkpt lat="42.41198" lon="0.10589">
        <ele>642.5</ele>
        <time>2017-07-02T11:57:19Z</time>
      </trkpt>
      <trkpt lat="42.41195" lon="0.10584">
        <ele>642.7</ele>
        <time>2017-07-02T11:57:21Z</time>
      </trkpt>
      <trkpt lat="42.41191" lon="0.10579">
        <ele>643</ele>
        <time>2017-07-02T11:57:23Z</time>
      </trkpt>
      <trkpt lat="42.41188" lon="0.10575">
        <ele>643.1</ele>
        <time>2017-07-02T11:57:25Z</time>
      </trkpt>
      <trkpt lat="42.41183" lon="0.10573">
        <ele>643.2</ele>
        <time>2017-07-02T11:57:27Z</time>
      </trkpt>
      <trkpt lat="42.41179" lon="0.10573">
        <ele>643.3</ele>
        <time>2017-07-02T11:57:29Z</time>
      </trkpt>
      <trkpt lat="42.41174" lon="0.10574">
        <ele>643.2</ele>
        <time>2017-07-02T11:57:31Z</time>
      </trkpt>
      <trkpt lat="42.41169" lon="0.10575">
        <ele>643.2</ele>
        <time>2017-07-02T11:57:33Z</time>
      </trkpt>
      <trkpt lat="42.41166" lon="0.10578">
        <ele>643.1</ele>
        <time>2017-07-02T11:57:35Z</time>
      </trkpt>
      <trkpt lat="42.41163" lon="0.10581">
        <ele>643.1</ele>
        <time>2017-07-02T11:57:37Z</time>
      </trkpt>
      <trkpt lat="42.4116" lon="0.10584">
        <ele>643</ele>
        <time>2017-07-02T11:57:40Z</time>
      </trkpt>
      <trkpt lat="42.41158" lon="0.10581">
        <ele>643</ele>
        <time>2017-07-02T11:57:43Z</time>
      </trkpt>
      <trkpt lat="42.4116" lon="0.10575">
        <ele>643.5</ele>
        <time>2017-07-02T11:57:45Z</time>
      </trkpt>
      <trkpt lat="42.41164" lon="0.10571">
        <ele>644.1</ele>
        <time>2017-07-02T11:57:47Z</time>
      </trkpt>
      <trkpt lat="42.41167" lon="0.10569">
        <ele>644.5</ele>
        <time>2017-07-02T11:57:48Z</time>
      </trkpt>
      <trkpt lat="42.41169" lon="0.10567">
        <ele>644.8</ele>
        <time>2017-07-02T11:57:49Z</time>
      </trkpt>
      <trkpt lat="42.41174" lon="0.10565">
        <ele>645.4</ele>
        <time>2017-07-02T11:57:51Z</time>
      </trkpt>
      <trkpt lat="42.41178" lon="0.10562">
        <ele>646</ele>
        <time>2017-07-02T11:57:53Z</time>
      </trkpt>
      <trkpt lat="42.41182" lon="0.1056">
        <ele>646.5</ele>
        <time>2017-07-02T11:57:55Z</time>
      </trkpt>
      <trkpt lat="42.41186" lon="0.10558">
        <ele>647.1</ele>
        <time>2017-07-02T11:57:57Z</time>
      </trkpt>
      <trkpt lat="42.41189" lon="0.10554">
        <ele>647.7</ele>
        <time>2017-07-02T11:57:59Z</time>
      </trkpt>
      <trkpt lat="42.41192" lon="0.10551">
        <ele>648.3</ele>
        <time>2017-07-02T11:58:01Z</time>
      </trkpt>
      <trkpt lat="42.41194" lon="0.10547">
        <ele>648.8</ele>
        <time>2017-07-02T11:58:03Z</time>
      </trkpt>
      <trkpt lat="42.41197" lon="0.10543">
        <ele>649.2</ele>
        <time>2017-07-02T11:58:05Z</time>
      </trkpt>
      <trkpt lat="42.41201" lon="0.10542">
        <ele>649.6</ele>
        <time>2017-07-02T11:58:07Z</time>
      </trkpt>
      <trkpt lat="42.41205" lon="0.10542">
        <ele>650</ele>
        <time>2017-07-02T11:58:09Z</time>
      </trkpt>
      <trkpt lat="42.41209" lon="0.10543">
        <ele>650.3</ele>
        <time>2017-07-02T11:58:11Z</time>
      </trkpt>
      <trkpt lat="42.41213" lon="0.10543">
        <ele>650.7</ele>
        <time>2017-07-02T11:58:13Z</time>
      </trkpt>
      <trkpt lat="42.41217" lon="0.10543">
        <ele>651.1</ele>
        <time>2017-07-02T11:58:15Z</time>
      </trkpt>
      <trkpt lat="42.41221" lon="0.10542">
        <ele>651.4</ele>
        <time>2017-07-02T11:58:17Z</time>
      </trkpt>
      <trkpt lat="42.41224" lon="0.10543">
        <ele>651.7</ele>
        <time>2017-07-02T11:58:19Z</time>
      </trkpt>
      <trkpt lat="42.41227" lon="0.10543">
        <ele>652</ele>
        <time>2017-07-02T11:58:21Z</time>
      </trkpt>
      <trkpt lat="42.41231" lon="0.10544">
        <ele>652.3</ele>
        <time>2017-07-02T11:58:23Z</time>
      </trkpt>
      <trkpt lat="42.41234" lon="0.10543">
        <ele>652.6</ele>
        <time>2017-07-02T11:58:25Z</time>
      </trkpt>
      <trkpt lat="42.41237" lon="0.10542">
        <ele>652.8</ele>
        <time>2017-07-02T11:58:27Z</time>
      </trkpt>
      <trkpt lat="42.41241" lon="0.10541">
        <ele>653.9</ele>
        <time>2017-07-02T11:58:30Z</time>
      </trkpt>
      <trkpt lat="42.41243" lon="0.10539">
        <ele>655.1</ele>
        <time>2017-07-02T11:58:32Z</time>
      </trkpt>
      <trkpt lat="42.41246" lon="0.10536">
        <ele>656.7</ele>
        <time>2017-07-02T11:58:35Z</time>
      </trkpt>
      <trkpt lat="42.41248" lon="0.10533">
        <ele>657.8</ele>
        <time>2017-07-02T11:58:37Z</time>
      </trkpt>
      <trkpt lat="42.41249" lon="0.1053">
        <ele>659</ele>
        <time>2017-07-02T11:58:39Z</time>
      </trkpt>
      <trkpt lat="42.41251" lon="0.10525">
        <ele>660.4</ele>
        <time>2017-07-02T11:58:42Z</time>
      </trkpt>
      <trkpt lat="42.41252" lon="0.10521">
        <ele>662</ele>
        <time>2017-07-02T11:58:45Z</time>
      </trkpt>
      <trkpt lat="42.41255" lon="0.10516">
        <ele>663.6</ele>
        <time>2017-07-02T11:58:48Z</time>
      </trkpt>
      <trkpt lat="42.41256" lon="0.10512">
        <ele>665</ele>
        <time>2017-07-02T11:58:51Z</time>
      </trkpt>
      <trkpt lat="42.41258" lon="0.10509">
        <ele>666.4</ele>
        <time>2017-07-02T11:58:54Z</time>
      </trkpt>
      <trkpt lat="42.41262" lon="0.10507">
        <ele>668</ele>
        <time>2017-07-02T11:58:57Z</time>
      </trkpt>
      <trkpt lat="42.41265" lon="0.10507">
        <ele>668.1</ele>
        <time>2017-07-02T11:58:59Z</time>
      </trkpt>
      <trkpt lat="42.41268" lon="0.10506">
        <ele>668.2</ele>
        <time>2017-07-02T11:59:01Z</time>
      </trkpt>
      <trkpt lat="42.4127" lon="0.10504">
        <ele>668.4</ele>
        <time>2017-07-02T11:59:09Z</time>
      </trkpt>
      <trkpt lat="42.41271" lon="0.105">
        <ele>668.5</ele>
        <time>2017-07-02T11:59:15Z</time>
      </trkpt>
      <trkpt lat="42.41272" lon="0.10497">
        <ele>668.6</ele>
        <time>2017-07-02T11:59:23Z</time>
      </trkpt>
      <trkpt lat="42.41275" lon="0.10496">
        <ele>668.8</ele>
        <time>2017-07-02T11:59:28Z</time>
      </trkpt>
      <trkpt lat="42.41277" lon="0.10495">
        <ele>669.3</ele>
        <time>2017-07-02T11:59:34Z</time>
      </trkpt>
      <trkpt lat="42.4128" lon="0.10492">
        <ele>669.8</ele>
        <time>2017-07-02T11:59:36Z</time>
      </trkpt>
      <trkpt lat="42.41282" lon="0.10489">
        <ele>670.1</ele>
        <time>2017-07-02T11:59:38Z</time>
      </trkpt>
      <trkpt lat="42.41284" lon="0.10487">
        <ele>670.4</ele>
        <time>2017-07-02T11:59:40Z</time>
      </trkpt>
      <trkpt lat="42.41287" lon="0.10485">
        <ele>670.6</ele>
        <time>2017-07-02T11:59:42Z</time>
      </trkpt>
      <trkpt lat="42.4129" lon="0.10484">
        <ele>670.9</ele>
        <time>2017-07-02T11:59:44Z</time>
      </trkpt>
      <trkpt lat="42.41293" lon="0.10483">
        <ele>671.2</ele>
        <time>2017-07-02T11:59:46Z</time>
      </trkpt>
      <trkpt lat="42.41297" lon="0.10481">
        <ele>671.8</ele>
        <time>2017-07-02T11:59:48Z</time>
      </trkpt>
      <trkpt lat="42.413" lon="0.10479">
        <ele>672.6</ele>
        <time>2017-07-02T11:59:50Z</time>
      </trkpt>
      <trkpt lat="42.41303" lon="0.10477">
        <ele>672.9</ele>
        <time>2017-07-02T11:59:52Z</time>
      </trkpt>
      <trkpt lat="42.41306" lon="0.10476">
        <ele>673.3</ele>
        <time>2017-07-02T11:59:54Z</time>
      </trkpt>
      <trkpt lat="42.41309" lon="0.10474">
        <ele>673.8</ele>
        <time>2017-07-02T11:59:56Z</time>
      </trkpt>
      <trkpt lat="42.41311" lon="0.10471">
        <ele>674.3</ele>
        <time>2017-07-02T11:59:58Z</time>
      </trkpt>
      <trkpt lat="42.41314" lon="0.10468">
        <ele>674.7</ele>
        <time>2017-07-02T12:00:01Z</time>
      </trkpt>
      <trkpt lat="42.41317" lon="0.10465">
        <ele>675.1</ele>
        <time>2017-07-02T12:00:04Z</time>
      </trkpt>
      <trkpt lat="42.4132" lon="0.10463">
        <ele>675.3</ele>
        <time>2017-07-02T12:00:06Z</time>
      </trkpt>
      <trkpt lat="42.41323" lon="0.10461">
        <ele>675.6</ele>
        <time>2017-07-02T12:00:08Z</time>
      </trkpt>
      <trkpt lat="42.41325" lon="0.10458">
        <ele>676.2</ele>
        <time>2017-07-02T12:00:10Z</time>
      </trkpt>
      <trkpt lat="42.41327" lon="0.10456">
        <ele>676.8</ele>
        <time>2017-07-02T12:00:12Z</time>
      </trkpt>
      <trkpt lat="42.4133" lon="0.10453">
        <ele>677.1</ele>
        <time>2017-07-02T12:00:14Z</time>
      </trkpt>
      <trkpt lat="42.41332" lon="0.10451">
        <ele>677.3</ele>
        <time>2017-07-02T12:00:16Z</time>
      </trkpt>
      <trkpt lat="42.41334" lon="0.10447">
        <ele>677.5</ele>
        <time>2017-07-02T12:00:18Z</time>
      </trkpt>
      <trkpt lat="42.41336" lon="0.10444">
        <ele>677.8</ele>
        <time>2017-07-02T12:00:20Z</time>
      </trkpt>
      <trkpt lat="42.41338" lon="0.10441">
        <ele>678.1</ele>
        <time>2017-07-02T12:00:22Z</time>
      </trkpt>
      <trkpt lat="42.41341" lon="0.10438">
        <ele>678.8</ele>
        <time>2017-07-02T12:00:24Z</time>
      </trkpt>
      <trkpt lat="42.41344" lon="0.10436">
        <ele>679.3</ele>
        <time>2017-07-02T12:00:26Z</time>
      </trkpt>
      <trkpt lat="42.41345" lon="0.10433">
        <ele>679.6</ele>
        <time>2017-07-02T12:00:28Z</time>
      </trkpt>
      <trkpt lat="42.41348" lon="0.10429">
        <ele>679.9</ele>
        <time>2017-07-02T12:00:31Z</time>
      </trkpt>
      <trkpt lat="42.4135" lon="0.10426">
        <ele>680.5</ele>
        <time>2017-07-02T12:00:33Z</time>
      </trkpt>
      <trkpt lat="42.41352" lon="0.10423">
        <ele>681</ele>
        <time>2017-07-02T12:00:35Z</time>
      </trkpt>
      <trkpt lat="42.41355" lon="0.1042">
        <ele>681.4</ele>
        <time>2017-07-02T12:00:37Z</time>
      </trkpt>
      <trkpt lat="42.41357" lon="0.10419">
        <ele>681.5</ele>
        <time>2017-07-02T12:00:39Z</time>
      </trkpt>
      <trkpt lat="42.4136" lon="0.10418">
        <ele>681.6</ele>
        <time>2017-07-02T12:00:41Z</time>
      </trkpt>
      <trkpt lat="42.41362" lon="0.10416">
        <ele>681.8</ele>
        <time>2017-07-02T12:00:43Z</time>
      </trkpt>
      <trkpt lat="42.41366" lon="0.10413">
        <ele>681.9</ele>
        <time>2017-07-02T12:00:46Z</time>
      </trkpt>
      <trkpt lat="42.41369" lon="0.1041">
        <ele>682.1</ele>
        <time>2017-07-02T12:00:48Z</time>
      </trkpt>
      <trkpt lat="42.41371" lon="0.10408">
        <ele>682.2</ele>
        <time>2017-07-02T12:00:50Z</time>
      </trkpt>
      <trkpt lat="42.41375" lon="0.10406">
        <ele>682.3</ele>
        <time>2017-07-02T12:00:52Z</time>
      </trkpt>
      <trkpt lat="42.41377" lon="0.10404">
        <ele>682.5</ele>
        <time>2017-07-02T12:00:54Z</time>
      </trkpt>
      <trkpt lat="42.4138" lon="0.10402">
        <ele>682.7</ele>
        <time>2017-07-02T12:00:56Z</time>
      </trkpt>
      <trkpt lat="42.41383" lon="0.10399">
        <ele>683.1</ele>
        <time>2017-07-02T12:00:58Z</time>
      </trkpt>
      <trkpt lat="42.41385" lon="0.10397">
        <ele>683.5</ele>
        <time>2017-07-02T12:01:00Z</time>
      </trkpt>
      <trkpt lat="42.41389" lon="0.10394">
        <ele>683.7</ele>
        <time>2017-07-02T12:01:02Z</time>
      </trkpt>
      <trkpt lat="42.41392" lon="0.10392">
        <ele>684</ele>
        <time>2017-07-02T12:01:04Z</time>
      </trkpt>
      <trkpt lat="42.41396" lon="0.10391">
        <ele>684.2</ele>
        <time>2017-07-02T12:01:06Z</time>
      </trkpt>
      <trkpt lat="42.41398" lon="0.1039">
        <ele>684.3</ele>
        <time>2017-07-02T12:01:08Z</time>
      </trkpt>
      <trkpt lat="42.41402" lon="0.10387">
        <ele>684.5</ele>
        <time>2017-07-02T12:01:11Z</time>
      </trkpt>
      <trkpt lat="42.41404" lon="0.10384">
        <ele>684.7</ele>
        <time>2017-07-02T12:01:13Z</time>
      </trkpt>
      <trkpt lat="42.41406" lon="0.10381">
        <ele>684.8</ele>
        <time>2017-07-02T12:01:15Z</time>
      </trkpt>
      <trkpt lat="42.41409" lon="0.10376">
        <ele>685</ele>
        <time>2017-07-02T12:01:17Z</time>
      </trkpt>
      <trkpt lat="42.41411" lon="0.10371">
        <ele>685.5</ele>
        <time>2017-07-02T12:01:19Z</time>
      </trkpt>
      <trkpt lat="42.41414" lon="0.10365">
        <ele>686.1</ele>
        <time>2017-07-02T12:01:21Z</time>
      </trkpt>
      <trkpt lat="42.41417" lon="0.10361">
        <ele>686.5</ele>
        <time>2017-07-02T12:01:23Z</time>
      </trkpt>
      <trkpt lat="42.4142" lon="0.10357">
        <ele>686.8</ele>
        <time>2017-07-02T12:01:25Z</time>
      </trkpt>
      <trkpt lat="42.41423" lon="0.10353">
        <ele>687.1</ele>
        <time>2017-07-02T12:01:27Z</time>
      </trkpt>
      <trkpt lat="42.41427" lon="0.1035">
        <ele>687.6</ele>
        <time>2017-07-02T12:01:29Z</time>
      </trkpt>
      <trkpt lat="42.41431" lon="0.10349">
        <ele>688.4</ele>
        <time>2017-07-02T12:01:31Z</time>
      </trkpt>
      <trkpt lat="42.41435" lon="0.10349">
        <ele>688.9</ele>
        <time>2017-07-02T12:01:33Z</time>
      </trkpt>
      <trkpt lat="42.41438" lon="0.10349">
        <ele>689.1</ele>
        <time>2017-07-02T12:01:35Z</time>
      </trkpt>
      <trkpt lat="42.41442" lon="0.10348">
        <ele>689.5</ele>
        <time>2017-07-02T12:01:37Z</time>
      </trkpt>
      <trkpt lat="42.41446" lon="0.10347">
        <ele>690.2</ele>
        <time>2017-07-02T12:01:39Z</time>
      </trkpt>
      <trkpt lat="42.41448" lon="0.10345">
        <ele>690.9</ele>
        <time>2017-07-02T12:01:41Z</time>
      </trkpt>
      <trkpt lat="42.41451" lon="0.10342">
        <ele>691.3</ele>
        <time>2017-07-02T12:01:43Z</time>
      </trkpt>
      <trkpt lat="42.41454" lon="0.1034">
        <ele>691.5</ele>
        <time>2017-07-02T12:01:45Z</time>
      </trkpt>
      <trkpt lat="42.41457" lon="0.10338">
        <ele>691.8</ele>
        <time>2017-07-02T12:01:47Z</time>
      </trkpt>
      <trkpt lat="42.41459" lon="0.10337">
        <ele>692.1</ele>
        <time>2017-07-02T12:01:49Z</time>
      </trkpt>
      <trkpt lat="42.41462" lon="0.10335">
        <ele>692.7</ele>
        <time>2017-07-02T12:01:51Z</time>
      </trkpt>
      <trkpt lat="42.41465" lon="0.10332">
        <ele>693.4</ele>
        <time>2017-07-02T12:01:53Z</time>
      </trkpt>
      <trkpt lat="42.41468" lon="0.10328">
        <ele>693.9</ele>
        <time>2017-07-02T12:01:55Z</time>
      </trkpt>
      <trkpt lat="42.4147" lon="0.10326">
        <ele>694.1</ele>
        <time>2017-07-02T12:01:57Z</time>
      </trkpt>
      <trkpt lat="42.41473" lon="0.10324">
        <ele>694.3</ele>
        <time>2017-07-02T12:01:59Z</time>
      </trkpt>
      <trkpt lat="42.41476" lon="0.10322">
        <ele>694.8</ele>
        <time>2017-07-02T12:02:01Z</time>
      </trkpt>
      <trkpt lat="42.41478" lon="0.10319">
        <ele>695.3</ele>
        <time>2017-07-02T12:02:03Z</time>
      </trkpt>
      <trkpt lat="42.41481" lon="0.10316">
        <ele>695.6</ele>
        <time>2017-07-02T12:02:05Z</time>
      </trkpt>
      <trkpt lat="42.41483" lon="0.10313">
        <ele>695.8</ele>
        <time>2017-07-02T12:02:07Z</time>
      </trkpt>
      <trkpt lat="42.41485" lon="0.10311">
        <ele>696.1</ele>
        <time>2017-07-02T12:02:09Z</time>
      </trkpt>
      <trkpt lat="42.41487" lon="0.10307">
        <ele>696.4</ele>
        <time>2017-07-02T12:02:34Z</time>
      </trkpt>
      <trkpt lat="42.4149" lon="0.10304">
        <ele>696.6</ele>
        <time>2017-07-02T12:02:36Z</time>
      </trkpt>
      <trkpt lat="42.41492" lon="0.103">
        <ele>696.9</ele>
        <time>2017-07-02T12:02:38Z</time>
      </trkpt>
      <trkpt lat="42.41496" lon="0.10296">
        <ele>697.3</ele>
        <time>2017-07-02T12:02:40Z</time>
      </trkpt>
      <trkpt lat="42.41499" lon="0.10294">
        <ele>698.2</ele>
        <time>2017-07-02T12:02:42Z</time>
      </trkpt>
      <trkpt lat="42.41502" lon="0.1029">
        <ele>699.2</ele>
        <time>2017-07-02T12:02:44Z</time>
      </trkpt>
      <trkpt lat="42.41505" lon="0.10285">
        <ele>699.7</ele>
        <time>2017-07-02T12:02:46Z</time>
      </trkpt>
      <trkpt lat="42.41506" lon="0.10281">
        <ele>700</ele>
        <time>2017-07-02T12:02:48Z</time>
      </trkpt>
      <trkpt lat="42.41508" lon="0.10277">
        <ele>700.3</ele>
        <time>2017-07-02T12:02:50Z</time>
      </trkpt>
      <trkpt lat="42.41508" lon="0.10271">
        <ele>700.9</ele>
        <time>2017-07-02T12:02:52Z</time>
      </trkpt>
      <trkpt lat="42.4151" lon="0.10268">
        <ele>701.8</ele>
        <time>2017-07-02T12:03:10Z</time>
      </trkpt>
      <trkpt lat="42.4151" lon="0.10264">
        <ele>702.3</ele>
        <time>2017-07-02T12:03:13Z</time>
      </trkpt>
      <trkpt lat="42.41511" lon="0.1026">
        <ele>702.7</ele>
        <time>2017-07-02T12:03:16Z</time>
      </trkpt>
      <trkpt lat="42.41514" lon="0.10257">
        <ele>703</ele>
        <time>2017-07-02T12:03:20Z</time>
      </trkpt>
      <trkpt lat="42.41516" lon="0.10254">
        <ele>703.2</ele>
        <time>2017-07-02T12:03:23Z</time>
      </trkpt>
      <trkpt lat="42.41519" lon="0.10252">
        <ele>703.3</ele>
        <time>2017-07-02T12:03:25Z</time>
      </trkpt>
      <trkpt lat="42.41521" lon="0.10249">
        <ele>703.6</ele>
        <time>2017-07-02T12:03:27Z</time>
      </trkpt>
      <trkpt lat="42.41524" lon="0.10248">
        <ele>703.9</ele>
        <time>2017-07-02T12:03:29Z</time>
      </trkpt>
      <trkpt lat="42.41528" lon="0.10248">
        <ele>704.1</ele>
        <time>2017-07-02T12:03:31Z</time>
      </trkpt>
      <trkpt lat="42.41531" lon="0.10246">
        <ele>704.5</ele>
        <time>2017-07-02T12:03:33Z</time>
      </trkpt>
      <trkpt lat="42.41533" lon="0.10243">
        <ele>705.1</ele>
        <time>2017-07-02T12:03:35Z</time>
      </trkpt>
      <trkpt lat="42.41535" lon="0.10239">
        <ele>705.5</ele>
        <time>2017-07-02T12:03:37Z</time>
      </trkpt>
      <trkpt lat="42.41538" lon="0.10236">
        <ele>705.8</ele>
        <time>2017-07-02T12:03:39Z</time>
      </trkpt>
      <trkpt lat="42.41541" lon="0.10234">
        <ele>706.1</ele>
        <time>2017-07-02T12:03:41Z</time>
      </trkpt>
      <trkpt lat="42.41543" lon="0.10232">
        <ele>706.4</ele>
        <time>2017-07-02T12:03:43Z</time>
      </trkpt>
      <trkpt lat="42.41545" lon="0.1023">
        <ele>707</ele>
        <time>2017-07-02T12:03:45Z</time>
      </trkpt>
      <trkpt lat="42.41548" lon="0.10228">
        <ele>707.8</ele>
        <time>2017-07-02T12:03:47Z</time>
      </trkpt>
      <trkpt lat="42.4155" lon="0.10226">
        <ele>708.4</ele>
        <time>2017-07-02T12:03:49Z</time>
      </trkpt>
      <trkpt lat="42.41553" lon="0.10223">
        <ele>709.5</ele>
        <time>2017-07-02T12:03:51Z</time>
      </trkpt>
      <trkpt lat="42.41557" lon="0.10221">
        <ele>710.4</ele>
        <time>2017-07-02T12:03:54Z</time>
      </trkpt>
      <trkpt lat="42.4156" lon="0.10219">
        <ele>711</ele>
        <time>2017-07-02T12:03:56Z</time>
      </trkpt>
      <trkpt lat="42.41562" lon="0.10214">
        <ele>711.7</ele>
        <time>2017-07-02T12:03:58Z</time>
      </trkpt>
      <trkpt lat="42.41563" lon="0.10211">
        <ele>712.3</ele>
        <time>2017-07-02T12:04:03Z</time>
      </trkpt>
      <trkpt lat="42.41566" lon="0.10209">
        <ele>712.4</ele>
        <time>2017-07-02T12:04:08Z</time>
      </trkpt>
      <trkpt lat="42.41569" lon="0.10208">
        <ele>712.6</ele>
        <time>2017-07-02T12:04:12Z</time>
      </trkpt>
      <trkpt lat="42.41571" lon="0.10206">
        <ele>712.7</ele>
        <time>2017-07-02T12:04:17Z</time>
      </trkpt>
      <trkpt lat="42.41572" lon="0.10202">
        <ele>712.7</ele>
        <time>2017-07-02T12:04:22Z</time>
      </trkpt>
      <trkpt lat="42.41574" lon="0.10199">
        <ele>712.7</ele>
        <time>2017-07-02T12:04:26Z</time>
      </trkpt>
      <trkpt lat="42.41577" lon="0.10197">
        <ele>712.7</ele>
        <time>2017-07-02T12:04:32Z</time>
      </trkpt>
      <trkpt lat="42.41584" lon="0.10195">
        <ele>712.7</ele>
        <time>2017-07-02T12:05:04Z</time>
      </trkpt>
      <trkpt lat="42.41589" lon="0.10194">
        <ele>712.6</ele>
        <time>2017-07-02T12:05:06Z</time>
      </trkpt>
      <trkpt lat="42.41592" lon="0.10194">
        <ele>712.6</ele>
        <time>2017-07-02T12:05:07Z</time>
      </trkpt>
      <trkpt lat="42.41596" lon="0.10194">
        <ele>712.5</ele>
        <time>2017-07-02T12:05:08Z</time>
      </trkpt>
      <trkpt lat="42.41599" lon="0.10193">
        <ele>712.4</ele>
        <time>2017-07-02T12:05:09Z</time>
      </trkpt>
      <trkpt lat="42.41602" lon="0.10192">
        <ele>712.3</ele>
        <time>2017-07-02T12:05:10Z</time>
      </trkpt>
      <trkpt lat="42.41605" lon="0.10192">
        <ele>712.2</ele>
        <time>2017-07-02T12:05:11Z</time>
      </trkpt>
      <trkpt lat="42.41608" lon="0.10191">
        <ele>712.1</ele>
        <time>2017-07-02T12:05:12Z</time>
      </trkpt>
      <trkpt lat="42.41611" lon="0.10189">
        <ele>711.8</ele>
        <time>2017-07-02T12:05:13Z</time>
      </trkpt>
      <trkpt lat="42.41614" lon="0.10188">
        <ele>711.5</ele>
        <time>2017-07-02T12:05:14Z</time>
      </trkpt>
      <trkpt lat="42.41618" lon="0.10187">
        <ele>711.2</ele>
        <time>2017-07-02T12:05:15Z</time>
      </trkpt>
      <trkpt lat="42.41623" lon="0.10185">
        <ele>710.8</ele>
        <time>2017-07-02T12:05:16Z</time>
      </trkpt>
      <trkpt lat="42.41627" lon="0.10183">
        <ele>710.4</ele>
        <time>2017-07-02T12:05:17Z</time>
      </trkpt>
      <trkpt lat="42.41631" lon="0.1018">
        <ele>710.1</ele>
        <time>2017-07-02T12:05:18Z</time>
      </trkpt>
      <trkpt lat="42.41635" lon="0.10177">
        <ele>709.8</ele>
        <time>2017-07-02T12:05:19Z</time>
      </trkpt>
      <trkpt lat="42.41639" lon="0.10176">
        <ele>709.6</ele>
        <time>2017-07-02T12:05:20Z</time>
      </trkpt>
      <trkpt lat="42.41643" lon="0.10176">
        <ele>709.5</ele>
        <time>2017-07-02T12:05:21Z</time>
      </trkpt>
      <trkpt lat="42.41646" lon="0.10176">
        <ele>709.5</ele>
        <time>2017-07-02T12:05:22Z</time>
      </trkpt>
      <trkpt lat="42.41649" lon="0.10177">
        <ele>709.5</ele>
        <time>2017-07-02T12:05:23Z</time>
      </trkpt>
      <trkpt lat="42.41653" lon="0.10177">
        <ele>709.5</ele>
        <time>2017-07-02T12:05:25Z</time>
      </trkpt>
      <trkpt lat="42.41656" lon="0.10175">
        <ele>709.5</ele>
        <time>2017-07-02T12:05:27Z</time>
      </trkpt>
      <trkpt lat="42.41659" lon="0.10173">
        <ele>709.6</ele>
        <time>2017-07-02T12:05:29Z</time>
      </trkpt>
      <trkpt lat="42.41662" lon="0.1017">
        <ele>709.7</ele>
        <time>2017-07-02T12:05:31Z</time>
      </trkpt>
      <trkpt lat="42.41666" lon="0.10167">
        <ele>709.7</ele>
        <time>2017-07-02T12:05:33Z</time>
      </trkpt>
      <trkpt lat="42.41668" lon="0.10163">
        <ele>709.8</ele>
        <time>2017-07-02T12:05:35Z</time>
      </trkpt>
      <trkpt lat="42.41671" lon="0.10159">
        <ele>710.1</ele>
        <time>2017-07-02T12:05:37Z</time>
      </trkpt>
      <trkpt lat="42.41673" lon="0.10155">
        <ele>710.5</ele>
        <time>2017-07-02T12:05:39Z</time>
      </trkpt>
      <trkpt lat="42.41676" lon="0.10153">
        <ele>710.9</ele>
        <time>2017-07-02T12:05:41Z</time>
      </trkpt>
      <trkpt lat="42.4168" lon="0.10153">
        <ele>711.1</ele>
        <time>2017-07-02T12:05:43Z</time>
      </trkpt>
      <trkpt lat="42.41684" lon="0.10154">
        <ele>711.3</ele>
        <time>2017-07-02T12:05:45Z</time>
      </trkpt>
      <trkpt lat="42.41688" lon="0.10156">
        <ele>711.4</ele>
        <time>2017-07-02T12:05:47Z</time>
      </trkpt>
      <trkpt lat="42.41692" lon="0.10156">
        <ele>711.6</ele>
        <time>2017-07-02T12:05:49Z</time>
      </trkpt>
      <trkpt lat="42.41696" lon="0.10154">
        <ele>711.8</ele>
        <time>2017-07-02T12:05:51Z</time>
      </trkpt>
      <trkpt lat="42.417" lon="0.10153">
        <ele>712.1</ele>
        <time>2017-07-02T12:05:53Z</time>
      </trkpt>
      <trkpt lat="42.41704" lon="0.10151">
        <ele>712.6</ele>
        <time>2017-07-02T12:05:55Z</time>
      </trkpt>
      <trkpt lat="42.41708" lon="0.10149">
        <ele>713.3</ele>
        <time>2017-07-02T12:05:57Z</time>
      </trkpt>
      <trkpt lat="42.41711" lon="0.10145">
        <ele>714</ele>
        <time>2017-07-02T12:06:00Z</time>
      </trkpt>
      <trkpt lat="42.41714" lon="0.10144">
        <ele>714.3</ele>
        <time>2017-07-02T12:06:02Z</time>
      </trkpt>
      <trkpt lat="42.41717" lon="0.10142">
        <ele>714.7</ele>
        <time>2017-07-02T12:06:04Z</time>
      </trkpt>
      <trkpt lat="42.4172" lon="0.10139">
        <ele>715.4</ele>
        <time>2017-07-02T12:06:06Z</time>
      </trkpt>
      <trkpt lat="42.41723" lon="0.10136">
        <ele>715.7</ele>
        <time>2017-07-02T12:06:08Z</time>
      </trkpt>
      <trkpt lat="42.41725" lon="0.10133">
        <ele>715.9</ele>
        <time>2017-07-02T12:06:10Z</time>
      </trkpt>
      <trkpt lat="42.41727" lon="0.10131">
        <ele>715.9</ele>
        <time>2017-07-02T12:06:12Z</time>
      </trkpt>
      <trkpt lat="42.41731" lon="0.10127">
        <ele>716</ele>
        <time>2017-07-02T12:06:14Z</time>
      </trkpt>
      <trkpt lat="42.41735" lon="0.10122">
        <ele>716.1</ele>
        <time>2017-07-02T12:06:16Z</time>
      </trkpt>
      <trkpt lat="42.41737" lon="0.1012">
        <ele>716.2</ele>
        <time>2017-07-02T12:06:17Z</time>
      </trkpt>
      <trkpt lat="42.41739" lon="0.10117">
        <ele>716.2</ele>
        <time>2017-07-02T12:06:18Z</time>
      </trkpt>
      <trkpt lat="42.41742" lon="0.10114">
        <ele>716.3</ele>
        <time>2017-07-02T12:06:19Z</time>
      </trkpt>
      <trkpt lat="42.41744" lon="0.10111">
        <ele>716.3</ele>
        <time>2017-07-02T12:06:20Z</time>
      </trkpt>
      <trkpt lat="42.41747" lon="0.10108">
        <ele>716.2</ele>
        <time>2017-07-02T12:06:21Z</time>
      </trkpt>
      <trkpt lat="42.4175" lon="0.10105">
        <ele>716.2</ele>
        <time>2017-07-02T12:06:22Z</time>
      </trkpt>
      <trkpt lat="42.41753" lon="0.10101">
        <ele>716.2</ele>
        <time>2017-07-02T12:06:23Z</time>
      </trkpt>
      <trkpt lat="42.41756" lon="0.10097">
        <ele>716.1</ele>
        <time>2017-07-02T12:06:24Z</time>
      </trkpt>
      <trkpt lat="42.41759" lon="0.10093">
        <ele>716.1</ele>
        <time>2017-07-02T12:06:25Z</time>
      </trkpt>
      <trkpt lat="42.41761" lon="0.10089">
        <ele>715.9</ele>
        <time>2017-07-02T12:06:26Z</time>
      </trkpt>
      <trkpt lat="42.41764" lon="0.10085">
        <ele>715.8</ele>
        <time>2017-07-02T12:06:27Z</time>
      </trkpt>
      <trkpt lat="42.41766" lon="0.10081">
        <ele>715.7</ele>
        <time>2017-07-02T12:06:28Z</time>
      </trkpt>
      <trkpt lat="42.41768" lon="0.10077">
        <ele>715.4</ele>
        <time>2017-07-02T12:06:29Z</time>
      </trkpt>
      <trkpt lat="42.41771" lon="0.10072">
        <ele>715</ele>
        <time>2017-07-02T12:06:30Z</time>
      </trkpt>
      <trkpt lat="42.41774" lon="0.10066">
        <ele>714.5</ele>
        <time>2017-07-02T12:06:31Z</time>
      </trkpt>
      <trkpt lat="42.41777" lon="0.1006">
        <ele>714.1</ele>
        <time>2017-07-02T12:06:32Z</time>
      </trkpt>
      <trkpt lat="42.4178" lon="0.10055">
        <ele>713.7</ele>
        <time>2017-07-02T12:06:33Z</time>
      </trkpt>
      <trkpt lat="42.41783" lon="0.10048">
        <ele>713.4</ele>
        <time>2017-07-02T12:06:34Z</time>
      </trkpt>
      <trkpt lat="42.41786" lon="0.10042">
        <ele>713.1</ele>
        <time>2017-07-02T12:06:35Z</time>
      </trkpt>
      <trkpt lat="42.41789" lon="0.10035">
        <ele>712.9</ele>
        <time>2017-07-02T12:06:36Z</time>
      </trkpt>
      <trkpt lat="42.41791" lon="0.10028">
        <ele>712.8</ele>
        <time>2017-07-02T12:06:37Z</time>
      </trkpt>
      <trkpt lat="42.41794" lon="0.10021">
        <ele>712.7</ele>
        <time>2017-07-02T12:06:38Z</time>
      </trkpt>
      <trkpt lat="42.41796" lon="0.10015">
        <ele>712.6</ele>
        <time>2017-07-02T12:06:39Z</time>
      </trkpt>
      <trkpt lat="42.41797" lon="0.10009">
        <ele>712.5</ele>
        <time>2017-07-02T12:06:40Z</time>
      </trkpt>
      <trkpt lat="42.418" lon="0.10003">
        <ele>712.4</ele>
        <time>2017-07-02T12:06:41Z</time>
      </trkpt>
      <trkpt lat="42.41802" lon="0.09997">
        <ele>712.3</ele>
        <time>2017-07-02T12:06:42Z</time>
      </trkpt>
      <trkpt lat="42.41804" lon="0.09991">
        <ele>712.2</ele>
        <time>2017-07-02T12:06:43Z</time>
      </trkpt>
      <trkpt lat="42.41806" lon="0.09985">
        <ele>712.1</ele>
        <time>2017-07-02T12:06:44Z</time>
      </trkpt>
      <trkpt lat="42.41808" lon="0.09979">
        <ele>712</ele>
        <time>2017-07-02T12:06:45Z</time>
      </trkpt>
      <trkpt lat="42.41811" lon="0.09974">
        <ele>711.9</ele>
        <time>2017-07-02T12:06:46Z</time>
      </trkpt>
      <trkpt lat="42.41813" lon="0.09968">
        <ele>711.8</ele>
        <time>2017-07-02T12:06:47Z</time>
      </trkpt>
      <trkpt lat="42.41815" lon="0.09963">
        <ele>711.6</ele>
        <time>2017-07-02T12:06:48Z</time>
      </trkpt>
      <trkpt lat="42.41817" lon="0.0996">
        <ele>711.4</ele>
        <time>2017-07-02T12:06:49Z</time>
      </trkpt>
      <trkpt lat="42.4182" lon="0.09953">
        <ele>711</ele>
        <time>2017-07-02T12:06:51Z</time>
      </trkpt>
      <trkpt lat="42.41821" lon="0.0995">
        <ele>710.7</ele>
        <time>2017-07-02T12:06:52Z</time>
      </trkpt>
      <trkpt lat="42.41823" lon="0.09946">
        <ele>710.4</ele>
        <time>2017-07-02T12:06:53Z</time>
      </trkpt>
      <trkpt lat="42.41824" lon="0.09941">
        <ele>709.9</ele>
        <time>2017-07-02T12:06:54Z</time>
      </trkpt>
      <trkpt lat="42.41824" lon="0.09937">
        <ele>709.6</ele>
        <time>2017-07-02T12:06:55Z</time>
      </trkpt>
      <trkpt lat="42.41826" lon="0.09931">
        <ele>709</ele>
        <time>2017-07-02T12:06:57Z</time>
      </trkpt>
      <trkpt lat="42.41829" lon="0.09926">
        <ele>708.6</ele>
        <time>2017-07-02T12:06:59Z</time>
      </trkpt>
      <trkpt lat="42.41832" lon="0.09921">
        <ele>708.2</ele>
        <time>2017-07-02T12:07:01Z</time>
      </trkpt>
      <trkpt lat="42.41834" lon="0.09917">
        <ele>707.9</ele>
        <time>2017-07-02T12:07:02Z</time>
      </trkpt>
      <trkpt lat="42.41837" lon="0.09913">
        <ele>707.5</ele>
        <time>2017-07-02T12:07:03Z</time>
      </trkpt>
      <trkpt lat="42.41839" lon="0.09908">
        <ele>707.2</ele>
        <time>2017-07-02T12:07:04Z</time>
      </trkpt>
      <trkpt lat="42.41841" lon="0.09903">
        <ele>706.9</ele>
        <time>2017-07-02T12:07:05Z</time>
      </trkpt>
      <trkpt lat="42.41843" lon="0.09898">
        <ele>706.6</ele>
        <time>2017-07-02T12:07:06Z</time>
      </trkpt>
      <trkpt lat="42.41844" lon="0.09893">
        <ele>706.4</ele>
        <time>2017-07-02T12:07:07Z</time>
      </trkpt>
      <trkpt lat="42.41846" lon="0.09888">
        <ele>706.1</ele>
        <time>2017-07-02T12:07:08Z</time>
      </trkpt>
      <trkpt lat="42.41847" lon="0.09883">
        <ele>705.8</ele>
        <time>2017-07-02T12:07:09Z</time>
      </trkpt>
      <trkpt lat="42.4185" lon="0.09877">
        <ele>705.5</ele>
        <time>2017-07-02T12:07:10Z</time>
      </trkpt>
      <trkpt lat="42.41852" lon="0.09871">
        <ele>705</ele>
        <time>2017-07-02T12:07:11Z</time>
      </trkpt>
      <trkpt lat="42.41855" lon="0.09865">
        <ele>704.5</ele>
        <time>2017-07-02T12:07:12Z</time>
      </trkpt>
      <trkpt lat="42.41857" lon="0.09859">
        <ele>704</ele>
        <time>2017-07-02T12:07:13Z</time>
      </trkpt>
      <trkpt lat="42.4186" lon="0.09853">
        <ele>703.5</ele>
        <time>2017-07-02T12:07:14Z</time>
      </trkpt>
      <trkpt lat="42.41862" lon="0.09847">
        <ele>703</ele>
        <time>2017-07-02T12:07:15Z</time>
      </trkpt>
      <trkpt lat="42.41863" lon="0.09842">
        <ele>702.5</ele>
        <time>2017-07-02T12:07:16Z</time>
      </trkpt>
      <trkpt lat="42.41866" lon="0.09835">
        <ele>702</ele>
        <time>2017-07-02T12:07:17Z</time>
      </trkpt>
      <trkpt lat="42.41868" lon="0.09829">
        <ele>701.4</ele>
        <time>2017-07-02T12:07:18Z</time>
      </trkpt>
      <trkpt lat="42.4187" lon="0.09822">
        <ele>700.8</ele>
        <time>2017-07-02T12:07:19Z</time>
      </trkpt>
      <trkpt lat="42.41872" lon="0.09817">
        <ele>700.4</ele>
        <time>2017-07-02T12:07:20Z</time>
      </trkpt>
      <trkpt lat="42.41874" lon="0.09812">
        <ele>699.9</ele>
        <time>2017-07-02T12:07:21Z</time>
      </trkpt>
      <trkpt lat="42.41875" lon="0.09807">
        <ele>699.5</ele>
        <time>2017-07-02T12:07:22Z</time>
      </trkpt>
      <trkpt lat="42.41877" lon="0.09802">
        <ele>699</ele>
        <time>2017-07-02T12:07:23Z</time>
      </trkpt>
      <trkpt lat="42.41877" lon="0.09797">
        <ele>698.5</ele>
        <time>2017-07-02T12:07:24Z</time>
      </trkpt>
      <trkpt lat="42.41879" lon="0.09793">
        <ele>698.1</ele>
        <time>2017-07-02T12:07:25Z</time>
      </trkpt>
      <trkpt lat="42.41881" lon="0.09789">
        <ele>697.6</ele>
        <time>2017-07-02T12:07:26Z</time>
      </trkpt>
      <trkpt lat="42.41882" lon="0.09785">
        <ele>697.2</ele>
        <time>2017-07-02T12:07:27Z</time>
      </trkpt>
      <trkpt lat="42.41884" lon="0.09782">
        <ele>696.8</ele>
        <time>2017-07-02T12:07:28Z</time>
      </trkpt>
      <trkpt lat="42.41885" lon="0.09776">
        <ele>696.4</ele>
        <time>2017-07-02T12:07:30Z</time>
      </trkpt>
      <trkpt lat="42.41886" lon="0.09773">
        <ele>696</ele>
        <time>2017-07-02T12:07:32Z</time>
      </trkpt>
      <trkpt lat="42.41887" lon="0.09769">
        <ele>695.6</ele>
        <time>2017-07-02T12:07:34Z</time>
      </trkpt>
      <trkpt lat="42.41889" lon="0.09764">
        <ele>695.1</ele>
        <time>2017-07-02T12:07:36Z</time>
      </trkpt>
      <trkpt lat="42.41891" lon="0.09758">
        <ele>694.4</ele>
        <time>2017-07-02T12:07:38Z</time>
      </trkpt>
      <trkpt lat="42.41893" lon="0.09753">
        <ele>693.9</ele>
        <time>2017-07-02T12:07:40Z</time>
      </trkpt>
      <trkpt lat="42.41895" lon="0.0975">
        <ele>693.4</ele>
        <time>2017-07-02T12:07:42Z</time>
      </trkpt>
      <trkpt lat="42.41896" lon="0.09746">
        <ele>692.9</ele>
        <time>2017-07-02T12:07:45Z</time>
      </trkpt>
      <trkpt lat="42.41896" lon="0.09741">
        <ele>692.3</ele>
        <time>2017-07-02T12:07:49Z</time>
      </trkpt>
      <trkpt lat="42.41897" lon="0.09736">
        <ele>691.8</ele>
        <time>2017-07-02T12:07:52Z</time>
      </trkpt>
      <trkpt lat="42.41899" lon="0.09731">
        <ele>691.2</ele>
        <time>2017-07-02T12:07:54Z</time>
      </trkpt>
      <trkpt lat="42.419" lon="0.09727">
        <ele>690.8</ele>
        <time>2017-07-02T12:07:55Z</time>
      </trkpt>
      <trkpt lat="42.41901" lon="0.09724">
        <ele>690.5</ele>
        <time>2017-07-02T12:07:56Z</time>
      </trkpt>
      <trkpt lat="42.41901" lon="0.09717">
        <ele>690.1</ele>
        <time>2017-07-02T12:07:58Z</time>
      </trkpt>
      <trkpt lat="42.41902" lon="0.09713">
        <ele>689.8</ele>
        <time>2017-07-02T12:07:59Z</time>
      </trkpt>
      <trkpt lat="42.41903" lon="0.09708">
        <ele>689.6</ele>
        <time>2017-07-02T12:08:00Z</time>
      </trkpt>
      <trkpt lat="42.41904" lon="0.09703">
        <ele>689.3</ele>
        <time>2017-07-02T12:08:01Z</time>
      </trkpt>
      <trkpt lat="42.41905" lon="0.09699">
        <ele>689</ele>
        <time>2017-07-02T12:08:02Z</time>
      </trkpt>
      <trkpt lat="42.41906" lon="0.09694">
        <ele>688.8</ele>
        <time>2017-07-02T12:08:03Z</time>
      </trkpt>
      <trkpt lat="42.41907" lon="0.09689">
        <ele>688.6</ele>
        <time>2017-07-02T12:08:04Z</time>
      </trkpt>
      <trkpt lat="42.41909" lon="0.09685">
        <ele>688.5</ele>
        <time>2017-07-02T12:08:05Z</time>
      </trkpt>
      <trkpt lat="42.41911" lon="0.09681">
        <ele>688.4</ele>
        <time>2017-07-02T12:08:06Z</time>
      </trkpt>
      <trkpt lat="42.41913" lon="0.09676">
        <ele>688.3</ele>
        <time>2017-07-02T12:08:07Z</time>
      </trkpt>
      <trkpt lat="42.41914" lon="0.09671">
        <ele>688.1</ele>
        <time>2017-07-02T12:08:08Z</time>
      </trkpt>
      <trkpt lat="42.41915" lon="0.09665">
        <ele>688</ele>
        <time>2017-07-02T12:08:09Z</time>
      </trkpt>
      <trkpt lat="42.41917" lon="0.0966">
        <ele>687.8</ele>
        <time>2017-07-02T12:08:10Z</time>
      </trkpt>
      <trkpt lat="42.41918" lon="0.09655">
        <ele>687.6</ele>
        <time>2017-07-02T12:08:11Z</time>
      </trkpt>
      <trkpt lat="42.41919" lon="0.0965">
        <ele>687.4</ele>
        <time>2017-07-02T12:08:12Z</time>
      </trkpt>
      <trkpt lat="42.41919" lon="0.09645">
        <ele>687.2</ele>
        <time>2017-07-02T12:08:13Z</time>
      </trkpt>
      <trkpt lat="42.4192" lon="0.0964">
        <ele>686.9</ele>
        <time>2017-07-02T12:08:14Z</time>
      </trkpt>
      <trkpt lat="42.41921" lon="0.09634">
        <ele>686.7</ele>
        <time>2017-07-02T12:08:15Z</time>
      </trkpt>
      <trkpt lat="42.41922" lon="0.09628">
        <ele>686.5</ele>
        <time>2017-07-02T12:08:16Z</time>
      </trkpt>
      <trkpt lat="42.41923" lon="0.09623">
        <ele>686.3</ele>
        <time>2017-07-02T12:08:17Z</time>
      </trkpt>
      <trkpt lat="42.41923" lon="0.09619">
        <ele>686.2</ele>
        <time>2017-07-02T12:08:18Z</time>
      </trkpt>
      <trkpt lat="42.41925" lon="0.09614">
        <ele>686.1</ele>
        <time>2017-07-02T12:08:19Z</time>
      </trkpt>
      <trkpt lat="42.41927" lon="0.09608">
        <ele>685.9</ele>
        <time>2017-07-02T12:08:20Z</time>
      </trkpt>
      <trkpt lat="42.4193" lon="0.09603">
        <ele>685.7</ele>
        <time>2017-07-02T12:08:21Z</time>
      </trkpt>
      <trkpt lat="42.41933" lon="0.09597">
        <ele>685.4</ele>
        <time>2017-07-02T12:08:22Z</time>
      </trkpt>
      <trkpt lat="42.41935" lon="0.09591">
        <ele>685</ele>
        <time>2017-07-02T12:08:23Z</time>
      </trkpt>
      <trkpt lat="42.41937" lon="0.09585">
        <ele>684.7</ele>
        <time>2017-07-02T12:08:24Z</time>
      </trkpt>
      <trkpt lat="42.41939" lon="0.0958">
        <ele>684.5</ele>
        <time>2017-07-02T12:08:25Z</time>
      </trkpt>
      <trkpt lat="42.4194" lon="0.09574">
        <ele>684.3</ele>
        <time>2017-07-02T12:08:26Z</time>
      </trkpt>
      <trkpt lat="42.41942" lon="0.09569">
        <ele>684.1</ele>
        <time>2017-07-02T12:08:27Z</time>
      </trkpt>
      <trkpt lat="42.41943" lon="0.09564">
        <ele>683.9</ele>
        <time>2017-07-02T12:08:28Z</time>
      </trkpt>
      <trkpt lat="42.41944" lon="0.09559">
        <ele>683.6</ele>
        <time>2017-07-02T12:08:29Z</time>
      </trkpt>
      <trkpt lat="42.41947" lon="0.09555">
        <ele>683.3</ele>
        <time>2017-07-02T12:08:30Z</time>
      </trkpt>
      <trkpt lat="42.41949" lon="0.09551">
        <ele>682.9</ele>
        <time>2017-07-02T12:08:31Z</time>
      </trkpt>
      <trkpt lat="42.41952" lon="0.09546">
        <ele>682.5</ele>
        <time>2017-07-02T12:08:32Z</time>
      </trkpt>
      <trkpt lat="42.41954" lon="0.0954">
        <ele>682</ele>
        <time>2017-07-02T12:08:33Z</time>
      </trkpt>
      <trkpt lat="42.41955" lon="0.09534">
        <ele>681.4</ele>
        <time>2017-07-02T12:08:34Z</time>
      </trkpt>
      <trkpt lat="42.41956" lon="0.09527">
        <ele>680.8</ele>
        <time>2017-07-02T12:08:35Z</time>
      </trkpt>
      <trkpt lat="42.41957" lon="0.09521">
        <ele>680.2</ele>
        <time>2017-07-02T12:08:36Z</time>
      </trkpt>
      <trkpt lat="42.41958" lon="0.09515">
        <ele>679.6</ele>
        <time>2017-07-02T12:08:37Z</time>
      </trkpt>
      <trkpt lat="42.41959" lon="0.09509">
        <ele>679</ele>
        <time>2017-07-02T12:08:38Z</time>
      </trkpt>
      <trkpt lat="42.41961" lon="0.09505">
        <ele>678.4</ele>
        <time>2017-07-02T12:08:39Z</time>
      </trkpt>
      <trkpt lat="42.41961" lon="0.095">
        <ele>677.7</ele>
        <time>2017-07-02T12:08:41Z</time>
      </trkpt>
      <trkpt lat="42.41964" lon="0.09501">
        <ele>676.9</ele>
        <time>2017-07-02T12:08:45Z</time>
      </trkpt>
      <trkpt lat="42.41966" lon="0.09498">
        <ele>676</ele>
        <time>2017-07-02T12:08:47Z</time>
      </trkpt>
      <trkpt lat="42.41967" lon="0.09492">
        <ele>675.1</ele>
        <time>2017-07-02T12:08:49Z</time>
      </trkpt>
      <trkpt lat="42.4197" lon="0.09489">
        <ele>674.3</ele>
        <time>2017-07-02T12:08:51Z</time>
      </trkpt>
      <trkpt lat="42.41975" lon="0.09488">
        <ele>673.8</ele>
        <time>2017-07-02T12:08:53Z</time>
      </trkpt>
      <trkpt lat="42.41978" lon="0.09487">
        <ele>673.6</ele>
        <time>2017-07-02T12:08:54Z</time>
      </trkpt>
      <trkpt lat="42.4198" lon="0.09484">
        <ele>673.4</ele>
        <time>2017-07-02T12:08:55Z</time>
      </trkpt>
      <trkpt lat="42.41983" lon="0.09481">
        <ele>673.2</ele>
        <time>2017-07-02T12:08:56Z</time>
      </trkpt>
      <trkpt lat="42.41985" lon="0.09479">
        <ele>673</ele>
        <time>2017-07-02T12:08:57Z</time>
      </trkpt>
      <trkpt lat="42.41986" lon="0.09475">
        <ele>672.9</ele>
        <time>2017-07-02T12:08:58Z</time>
      </trkpt>
      <trkpt lat="42.41988" lon="0.09472">
        <ele>672.6</ele>
        <time>2017-07-02T12:08:59Z</time>
      </trkpt>
      <trkpt lat="42.4199" lon="0.09467">
        <ele>672.2</ele>
        <time>2017-07-02T12:09:01Z</time>
      </trkpt>
      <trkpt lat="42.41991" lon="0.09462">
        <ele>671.7</ele>
        <time>2017-07-02T12:09:03Z</time>
      </trkpt>
      <trkpt lat="42.41992" lon="0.09456">
        <ele>671.2</ele>
        <time>2017-07-02T12:09:05Z</time>
      </trkpt>
      <trkpt lat="42.41992" lon="0.0945">
        <ele>670.5</ele>
        <time>2017-07-02T12:09:07Z</time>
      </trkpt>
      <trkpt lat="42.41992" lon="0.09445">
        <ele>669.8</ele>
        <time>2017-07-02T12:09:09Z</time>
      </trkpt>
      <trkpt lat="42.41992" lon="0.09439">
        <ele>669</ele>
        <time>2017-07-02T12:09:11Z</time>
      </trkpt>
      <trkpt lat="42.41991" lon="0.09433">
        <ele>668.2</ele>
        <time>2017-07-02T12:09:14Z</time>
      </trkpt>
      <trkpt lat="42.41991" lon="0.09429">
        <ele>667.6</ele>
        <time>2017-07-02T12:09:16Z</time>
      </trkpt>
      <trkpt lat="42.4199" lon="0.09425">
        <ele>666.9</ele>
        <time>2017-07-02T12:09:18Z</time>
      </trkpt>
      <trkpt lat="42.41989" lon="0.09418">
        <ele>666</ele>
        <time>2017-07-02T12:09:20Z</time>
      </trkpt>
      <trkpt lat="42.41988" lon="0.09412">
        <ele>665.2</ele>
        <time>2017-07-02T12:09:22Z</time>
      </trkpt>
      <trkpt lat="42.41987" lon="0.09408">
        <ele>664.6</ele>
        <time>2017-07-02T12:09:24Z</time>
      </trkpt>
      <trkpt lat="42.41986" lon="0.09403">
        <ele>663.8</ele>
        <time>2017-07-02T12:09:26Z</time>
      </trkpt>
      <trkpt lat="42.41985" lon="0.09399">
        <ele>663.1</ele>
        <time>2017-07-02T12:09:28Z</time>
      </trkpt>
      <trkpt lat="42.41984" lon="0.09394">
        <ele>662.2</ele>
        <time>2017-07-02T12:09:30Z</time>
      </trkpt>
      <trkpt lat="42.41984" lon="0.09389">
        <ele>661.4</ele>
        <time>2017-07-02T12:09:32Z</time>
      </trkpt>
      <trkpt lat="42.41982" lon="0.09385">
        <ele>660.7</ele>
        <time>2017-07-02T12:09:39Z</time>
      </trkpt>
      <trkpt lat="42.41979" lon="0.09384">
        <ele>660.1</ele>
        <time>2017-07-02T12:09:45Z</time>
      </trkpt>
      <trkpt lat="42.41977" lon="0.09381">
        <ele>659.4</ele>
        <time>2017-07-02T12:09:50Z</time>
      </trkpt>
      <trkpt lat="42.41976" lon="0.09378">
        <ele>658.7</ele>
        <time>2017-07-02T12:09:55Z</time>
      </trkpt>
      <trkpt lat="42.41978" lon="0.09374">
        <ele>657.8</ele>
        <time>2017-07-02T12:10:01Z</time>
      </trkpt>
      <trkpt lat="42.41981" lon="0.09375">
        <ele>656.8</ele>
        <time>2017-07-02T12:10:09Z</time>
      </trkpt>
      <trkpt lat="42.41984" lon="0.09373">
        <ele>655.7</ele>
        <time>2017-07-02T12:10:14Z</time>
      </trkpt>
      <trkpt lat="42.41986" lon="0.09375">
        <ele>654.7</ele>
        <time>2017-07-02T12:10:16Z</time>
      </trkpt>
      <trkpt lat="42.4199" lon="0.09378">
        <ele>652.9</ele>
        <time>2017-07-02T12:10:18Z</time>
      </trkpt>
      <trkpt lat="42.41992" lon="0.0938">
        <ele>652.4</ele>
        <time>2017-07-02T12:10:19Z</time>
      </trkpt>
      <trkpt lat="42.41995" lon="0.09382">
        <ele>651.9</ele>
        <time>2017-07-02T12:10:20Z</time>
      </trkpt>
      <trkpt lat="42.41999" lon="0.09387">
        <ele>650.7</ele>
        <time>2017-07-02T12:10:22Z</time>
      </trkpt>
      <trkpt lat="42.42001" lon="0.09389">
        <ele>650.4</ele>
        <time>2017-07-02T12:10:23Z</time>
      </trkpt>
      <trkpt lat="42.42004" lon="0.09391">
        <ele>650.2</ele>
        <time>2017-07-02T12:10:24Z</time>
      </trkpt>
      <trkpt lat="42.42007" lon="0.09393">
        <ele>649.8</ele>
        <time>2017-07-02T12:10:25Z</time>
      </trkpt>
      <trkpt lat="42.42011" lon="0.09395">
        <ele>649.2</ele>
        <time>2017-07-02T12:10:26Z</time>
      </trkpt>
      <trkpt lat="42.42015" lon="0.09398">
        <ele>648.9</ele>
        <time>2017-07-02T12:10:27Z</time>
      </trkpt>
      <trkpt lat="42.42019" lon="0.09401">
        <ele>648.7</ele>
        <time>2017-07-02T12:10:28Z</time>
      </trkpt>
      <trkpt lat="42.42022" lon="0.09405">
        <ele>648.6</ele>
        <time>2017-07-02T12:10:29Z</time>
      </trkpt>
      <trkpt lat="42.42025" lon="0.09409">
        <ele>648.5</ele>
        <time>2017-07-02T12:10:30Z</time>
      </trkpt>
      <trkpt lat="42.42028" lon="0.09414">
        <ele>648.4</ele>
        <time>2017-07-02T12:10:31Z</time>
      </trkpt>
      <trkpt lat="42.42031" lon="0.09418">
        <ele>648.3</ele>
        <time>2017-07-02T12:10:32Z</time>
      </trkpt>
      <trkpt lat="42.42034" lon="0.09422">
        <ele>648.2</ele>
        <time>2017-07-02T12:10:33Z</time>
      </trkpt>
      <trkpt lat="42.42037" lon="0.09425">
        <ele>648.2</ele>
        <time>2017-07-02T12:10:34Z</time>
      </trkpt>
      <trkpt lat="42.4204" lon="0.09429">
        <ele>648</ele>
        <time>2017-07-02T12:10:36Z</time>
      </trkpt>
      <trkpt lat="42.42044" lon="0.0943">
        <ele>648</ele>
        <time>2017-07-02T12:10:38Z</time>
      </trkpt>
      <trkpt lat="42.4205" lon="0.09425">
        <ele>647.8</ele>
        <time>2017-07-02T12:10:40Z</time>
      </trkpt>
      <trkpt lat="42.42052" lon="0.09421">
        <ele>647.7</ele>
        <time>2017-07-02T12:10:41Z</time>
      </trkpt>
      <trkpt lat="42.42054" lon="0.09416">
        <ele>647.6</ele>
        <time>2017-07-02T12:10:42Z</time>
      </trkpt>
      <trkpt lat="42.42057" lon="0.09412">
        <ele>647.5</ele>
        <time>2017-07-02T12:10:43Z</time>
      </trkpt>
      <trkpt lat="42.4206" lon="0.09407">
        <ele>647.4</ele>
        <time>2017-07-02T12:10:44Z</time>
      </trkpt>
      <trkpt lat="42.42063" lon="0.09403">
        <ele>647.4</ele>
        <time>2017-07-02T12:10:45Z</time>
      </trkpt>
      <trkpt lat="42.42068" lon="0.094">
        <ele>647.5</ele>
        <time>2017-07-02T12:10:46Z</time>
      </trkpt>
      <trkpt lat="42.42072" lon="0.09397">
        <ele>647.5</ele>
        <time>2017-07-02T12:10:47Z</time>
      </trkpt>
      <trkpt lat="42.42077" lon="0.09393">
        <ele>647.5</ele>
        <time>2017-07-02T12:10:48Z</time>
      </trkpt>
      <trkpt lat="42.42082" lon="0.09389">
        <ele>647.6</ele>
        <time>2017-07-02T12:10:49Z</time>
      </trkpt>
      <trkpt lat="42.42086" lon="0.09385">
        <ele>647.6</ele>
        <time>2017-07-02T12:10:50Z</time>
      </trkpt>
      <trkpt lat="42.42091" lon="0.0938">
        <ele>647.7</ele>
        <time>2017-07-02T12:10:51Z</time>
      </trkpt>
      <trkpt lat="42.42095" lon="0.09374">
        <ele>647.8</ele>
        <time>2017-07-02T12:10:52Z</time>
      </trkpt>
      <trkpt lat="42.42098" lon="0.09369">
        <ele>647.8</ele>
        <time>2017-07-02T12:10:53Z</time>
      </trkpt>
      <trkpt lat="42.42101" lon="0.09363">
        <ele>647.9</ele>
        <time>2017-07-02T12:10:54Z</time>
      </trkpt>
      <trkpt lat="42.42104" lon="0.09354">
        <ele>647.7</ele>
        <time>2017-07-02T12:10:55Z</time>
      </trkpt>
      <trkpt lat="42.42105" lon="0.09347">
        <ele>647.5</ele>
        <time>2017-07-02T12:10:56Z</time>
      </trkpt>
      <trkpt lat="42.42106" lon="0.09341">
        <ele>647.4</ele>
        <time>2017-07-02T12:10:57Z</time>
      </trkpt>
      <trkpt lat="42.4211" lon="0.09335">
        <ele>647.2</ele>
        <time>2017-07-02T12:10:58Z</time>
      </trkpt>
      <trkpt lat="42.42113" lon="0.09329">
        <ele>647</ele>
        <time>2017-07-02T12:10:59Z</time>
      </trkpt>
      <trkpt lat="42.42116" lon="0.09324">
        <ele>646.8</ele>
        <time>2017-07-02T12:11:00Z</time>
      </trkpt>
      <trkpt lat="42.4212" lon="0.09319">
        <ele>646.4</ele>
        <time>2017-07-02T12:11:01Z</time>
      </trkpt>
      <trkpt lat="42.42124" lon="0.09314">
        <ele>645.7</ele>
        <time>2017-07-02T12:11:02Z</time>
      </trkpt>
      <trkpt lat="42.42128" lon="0.0931">
        <ele>645.2</ele>
        <time>2017-07-02T12:11:03Z</time>
      </trkpt>
      <trkpt lat="42.4213" lon="0.09305">
        <ele>644.7</ele>
        <time>2017-07-02T12:11:04Z</time>
      </trkpt>
      <trkpt lat="42.42133" lon="0.09301">
        <ele>644.2</ele>
        <time>2017-07-02T12:11:05Z</time>
      </trkpt>
      <trkpt lat="42.42138" lon="0.09297">
        <ele>643.5</ele>
        <time>2017-07-02T12:11:06Z</time>
      </trkpt>
      <trkpt lat="42.42144" lon="0.09294">
        <ele>642.9</ele>
        <time>2017-07-02T12:11:07Z</time>
      </trkpt>
      <trkpt lat="42.4215" lon="0.09288">
        <ele>642.4</ele>
        <time>2017-07-02T12:11:08Z</time>
      </trkpt>
      <trkpt lat="42.42156" lon="0.09283">
        <ele>641.7</ele>
        <time>2017-07-02T12:11:09Z</time>
      </trkpt>
      <trkpt lat="42.42164" lon="0.09279">
        <ele>641.1</ele>
        <time>2017-07-02T12:11:10Z</time>
      </trkpt>
      <trkpt lat="42.42173" lon="0.09276">
        <ele>640.6</ele>
        <time>2017-07-02T12:11:11Z</time>
      </trkpt>
      <trkpt lat="42.4218" lon="0.0927">
        <ele>640.3</ele>
        <time>2017-07-02T12:11:12Z</time>
      </trkpt>
      <trkpt lat="42.42187" lon="0.09267">
        <ele>640</ele>
        <time>2017-07-02T12:11:13Z</time>
      </trkpt>
      <trkpt lat="42.42194" lon="0.09262">
        <ele>639.8</ele>
        <time>2017-07-02T12:11:14Z</time>
      </trkpt>
      <trkpt lat="42.422" lon="0.09257">
        <ele>639.7</ele>
        <time>2017-07-02T12:11:15Z</time>
      </trkpt>
      <trkpt lat="42.42207" lon="0.09254">
        <ele>639.6</ele>
        <time>2017-07-02T12:11:16Z</time>
      </trkpt>
      <trkpt lat="42.42214" lon="0.0925">
        <ele>639.5</ele>
        <time>2017-07-02T12:11:17Z</time>
      </trkpt>
      <trkpt lat="42.42221" lon="0.09246">
        <ele>639.3</ele>
        <time>2017-07-02T12:11:18Z</time>
      </trkpt>
      <trkpt lat="42.42228" lon="0.09241">
        <ele>639.1</ele>
        <time>2017-07-02T12:11:19Z</time>
      </trkpt>
      <trkpt lat="42.42233" lon="0.09236">
        <ele>638.9</ele>
        <time>2017-07-02T12:11:20Z</time>
      </trkpt>
      <trkpt lat="42.4224" lon="0.09232">
        <ele>638.7</ele>
        <time>2017-07-02T12:11:21Z</time>
      </trkpt>
      <trkpt lat="42.42246" lon="0.09228">
        <ele>638.6</ele>
        <time>2017-07-02T12:11:22Z</time>
      </trkpt>
      <trkpt lat="42.42252" lon="0.09223">
        <ele>638.4</ele>
        <time>2017-07-02T12:11:23Z</time>
      </trkpt>
      <trkpt lat="42.42257" lon="0.09218">
        <ele>638.3</ele>
        <time>2017-07-02T12:11:24Z</time>
      </trkpt>
      <trkpt lat="42.42262" lon="0.09214">
        <ele>638.2</ele>
        <time>2017-07-02T12:11:25Z</time>
      </trkpt>
      <trkpt lat="42.42268" lon="0.0921">
        <ele>638.1</ele>
        <time>2017-07-02T12:11:26Z</time>
      </trkpt>
      <trkpt lat="42.42274" lon="0.09208">
        <ele>638</ele>
        <time>2017-07-02T12:11:27Z</time>
      </trkpt>
      <trkpt lat="42.42279" lon="0.09205">
        <ele>637.9</ele>
        <time>2017-07-02T12:11:28Z</time>
      </trkpt>
      <trkpt lat="42.42285" lon="0.09202">
        <ele>637.8</ele>
        <time>2017-07-02T12:11:29Z</time>
      </trkpt>
      <trkpt lat="42.42291" lon="0.09199">
        <ele>637.8</ele>
        <time>2017-07-02T12:11:30Z</time>
      </trkpt>
      <trkpt lat="42.42297" lon="0.09196">
        <ele>637.8</ele>
        <time>2017-07-02T12:11:31Z</time>
      </trkpt>
      <trkpt lat="42.42303" lon="0.09194">
        <ele>637.8</ele>
        <time>2017-07-02T12:11:32Z</time>
      </trkpt>
      <trkpt lat="42.42308" lon="0.09192">
        <ele>637.8</ele>
        <time>2017-07-02T12:11:33Z</time>
      </trkpt>
      <trkpt lat="42.42313" lon="0.0919">
        <ele>637.8</ele>
        <time>2017-07-02T12:11:34Z</time>
      </trkpt>
      <trkpt lat="42.42317" lon="0.09189">
        <ele>637.8</ele>
        <time>2017-07-02T12:11:35Z</time>
      </trkpt>
      <trkpt lat="42.42321" lon="0.09189">
        <ele>637.8</ele>
        <time>2017-07-02T12:11:36Z</time>
      </trkpt>
      <trkpt lat="42.42325" lon="0.09189">
        <ele>637.8</ele>
        <time>2017-07-02T12:11:38Z</time>
      </trkpt>
      <trkpt lat="42.42329" lon="0.0919">
        <ele>637.7</ele>
        <time>2017-07-02T12:11:40Z</time>
      </trkpt>
      <trkpt lat="42.42332" lon="0.09191">
        <ele>637.7</ele>
        <time>2017-07-02T12:11:42Z</time>
      </trkpt>
      <trkpt lat="42.42334" lon="0.09192">
        <ele>637.6</ele>
        <time>2017-07-02T12:11:44Z</time>
      </trkpt>
      <trkpt lat="42.42337" lon="0.09194">
        <ele>637.6</ele>
        <time>2017-07-02T12:11:46Z</time>
      </trkpt>
      <trkpt lat="42.4234" lon="0.09195">
        <ele>637.5</ele>
        <time>2017-07-02T12:11:48Z</time>
      </trkpt>
      <trkpt lat="42.42343" lon="0.09195">
        <ele>637.4</ele>
        <time>2017-07-02T12:11:50Z</time>
      </trkpt>
      <trkpt lat="42.42346" lon="0.09192">
        <ele>637.3</ele>
        <time>2017-07-02T12:11:52Z</time>
      </trkpt>
      <trkpt lat="42.42349" lon="0.09188">
        <ele>637.2</ele>
        <time>2017-07-02T12:11:54Z</time>
      </trkpt>
      <trkpt lat="42.42351" lon="0.09185">
        <ele>637</ele>
        <time>2017-07-02T12:11:55Z</time>
      </trkpt>
      <trkpt lat="42.42354" lon="0.09182">
        <ele>636.8</ele>
        <time>2017-07-02T12:11:56Z</time>
      </trkpt>
      <trkpt lat="42.42358" lon="0.09179">
        <ele>636.6</ele>
        <time>2017-07-02T12:11:57Z</time>
      </trkpt>
      <trkpt lat="42.42362" lon="0.09177">
        <ele>636.4</ele>
        <time>2017-07-02T12:11:58Z</time>
      </trkpt>
      <trkpt lat="42.42367" lon="0.09175">
        <ele>636.2</ele>
        <time>2017-07-02T12:11:59Z</time>
      </trkpt>
      <trkpt lat="42.42372" lon="0.09173">
        <ele>636</ele>
        <time>2017-07-02T12:12:00Z</time>
      </trkpt>
      <trkpt lat="42.42378" lon="0.09171">
        <ele>635.8</ele>
        <time>2017-07-02T12:12:01Z</time>
      </trkpt>
      <trkpt lat="42.42383" lon="0.09169">
        <ele>635.5</ele>
        <time>2017-07-02T12:12:02Z</time>
      </trkpt>
      <trkpt lat="42.42389" lon="0.09166">
        <ele>635.4</ele>
        <time>2017-07-02T12:12:03Z</time>
      </trkpt>
      <trkpt lat="42.42394" lon="0.09164">
        <ele>635.2</ele>
        <time>2017-07-02T12:12:04Z</time>
      </trkpt>
      <trkpt lat="42.424" lon="0.09161">
        <ele>635</ele>
        <time>2017-07-02T12:12:05Z</time>
      </trkpt>
      <trkpt lat="42.42405" lon="0.09158">
        <ele>634.8</ele>
        <time>2017-07-02T12:12:06Z</time>
      </trkpt>
      <trkpt lat="42.42411" lon="0.09155">
        <ele>634.6</ele>
        <time>2017-07-02T12:12:07Z</time>
      </trkpt>
      <trkpt lat="42.42416" lon="0.09152">
        <ele>634.6</ele>
        <time>2017-07-02T12:12:08Z</time>
      </trkpt>
      <trkpt lat="42.42421" lon="0.09149">
        <ele>634.5</ele>
        <time>2017-07-02T12:12:09Z</time>
      </trkpt>
      <trkpt lat="42.42427" lon="0.09145">
        <ele>634.5</ele>
        <time>2017-07-02T12:12:10Z</time>
      </trkpt>
      <trkpt lat="42.42432" lon="0.09142">
        <ele>634.4</ele>
        <time>2017-07-02T12:12:11Z</time>
      </trkpt>
      <trkpt lat="42.42438" lon="0.09138">
        <ele>634.4</ele>
        <time>2017-07-02T12:12:12Z</time>
      </trkpt>
      <trkpt lat="42.42443" lon="0.09134">
        <ele>634.4</ele>
        <time>2017-07-02T12:12:13Z</time>
      </trkpt>
      <trkpt lat="42.42448" lon="0.09131">
        <ele>634.4</ele>
        <time>2017-07-02T12:12:14Z</time>
      </trkpt>
      <trkpt lat="42.42453" lon="0.09127">
        <ele>634.4</ele>
        <time>2017-07-02T12:12:15Z</time>
      </trkpt>
      <trkpt lat="42.42458" lon="0.09125">
        <ele>634.3</ele>
        <time>2017-07-02T12:12:16Z</time>
      </trkpt>
      <trkpt lat="42.42464" lon="0.09122">
        <ele>634.3</ele>
        <time>2017-07-02T12:12:17Z</time>
      </trkpt>
      <trkpt lat="42.42468" lon="0.09118">
        <ele>634.4</ele>
        <time>2017-07-02T12:12:18Z</time>
      </trkpt>
      <trkpt lat="42.42473" lon="0.09115">
        <ele>634.4</ele>
        <time>2017-07-02T12:12:19Z</time>
      </trkpt>
      <trkpt lat="42.42478" lon="0.09112">
        <ele>634.4</ele>
        <time>2017-07-02T12:12:20Z</time>
      </trkpt>
      <trkpt lat="42.42483" lon="0.0911">
        <ele>634.4</ele>
        <time>2017-07-02T12:12:21Z</time>
      </trkpt>
      <trkpt lat="42.42487" lon="0.09107">
        <ele>634.4</ele>
        <time>2017-07-02T12:12:22Z</time>
      </trkpt>
      <trkpt lat="42.42491" lon="0.09105">
        <ele>634.4</ele>
        <time>2017-07-02T12:12:23Z</time>
      </trkpt>
      <trkpt lat="42.42495" lon="0.09103">
        <ele>634.3</ele>
        <time>2017-07-02T12:12:24Z</time>
      </trkpt>
      <trkpt lat="42.42499" lon="0.09102">
        <ele>634.3</ele>
        <time>2017-07-02T12:12:25Z</time>
      </trkpt>
      <trkpt lat="42.42503" lon="0.091">
        <ele>634.3</ele>
        <time>2017-07-02T12:12:27Z</time>
      </trkpt>
      <trkpt lat="42.42509" lon="0.09099">
        <ele>634.2</ele>
        <time>2017-07-02T12:12:29Z</time>
      </trkpt>
      <trkpt lat="42.42513" lon="0.09098">
        <ele>634.1</ele>
        <time>2017-07-02T12:12:30Z</time>
      </trkpt>
      <trkpt lat="42.42516" lon="0.09097">
        <ele>634</ele>
        <time>2017-07-02T12:12:31Z</time>
      </trkpt>
      <trkpt lat="42.4252" lon="0.09096">
        <ele>634</ele>
        <time>2017-07-02T12:12:32Z</time>
      </trkpt>
      <trkpt lat="42.42524" lon="0.09094">
        <ele>633.9</ele>
        <time>2017-07-02T12:12:33Z</time>
      </trkpt>
      <trkpt lat="42.42528" lon="0.09092">
        <ele>633.8</ele>
        <time>2017-07-02T12:12:34Z</time>
      </trkpt>
      <trkpt lat="42.42531" lon="0.0909">
        <ele>633.8</ele>
        <time>2017-07-02T12:12:35Z</time>
      </trkpt>
      <trkpt lat="42.42534" lon="0.09088">
        <ele>633.7</ele>
        <time>2017-07-02T12:12:36Z</time>
      </trkpt>
      <trkpt lat="42.42537" lon="0.09086">
        <ele>633.7</ele>
        <time>2017-07-02T12:12:37Z</time>
      </trkpt>
      <trkpt lat="42.4254" lon="0.09084">
        <ele>633.7</ele>
        <time>2017-07-02T12:12:38Z</time>
      </trkpt>
      <trkpt lat="42.42543" lon="0.09081">
        <ele>633.6</ele>
        <time>2017-07-02T12:12:39Z</time>
      </trkpt>
      <trkpt lat="42.42547" lon="0.09079">
        <ele>633.6</ele>
        <time>2017-07-02T12:12:40Z</time>
      </trkpt>
      <trkpt lat="42.4255" lon="0.09076">
        <ele>633.5</ele>
        <time>2017-07-02T12:12:41Z</time>
      </trkpt>
      <trkpt lat="42.42554" lon="0.09074">
        <ele>633.4</ele>
        <time>2017-07-02T12:12:42Z</time>
      </trkpt>
      <trkpt lat="42.42559" lon="0.09073">
        <ele>633.2</ele>
        <time>2017-07-02T12:12:43Z</time>
      </trkpt>
      <trkpt lat="42.42563" lon="0.0907">
        <ele>633.1</ele>
        <time>2017-07-02T12:12:44Z</time>
      </trkpt>
      <trkpt lat="42.42568" lon="0.09068">
        <ele>632.8</ele>
        <time>2017-07-02T12:12:45Z</time>
      </trkpt>
      <trkpt lat="42.42573" lon="0.09065">
        <ele>632.5</ele>
        <time>2017-07-02T12:12:46Z</time>
      </trkpt>
      <trkpt lat="42.42577" lon="0.09064">
        <ele>632.3</ele>
        <time>2017-07-02T12:12:47Z</time>
      </trkpt>
      <trkpt lat="42.42582" lon="0.0906">
        <ele>631.8</ele>
        <time>2017-07-02T12:12:48Z</time>
      </trkpt>
      <trkpt lat="42.42588" lon="0.09051">
        <ele>631.4</ele>
        <time>2017-07-02T12:12:50Z</time>
      </trkpt>
      <trkpt lat="42.42596" lon="0.09046">
        <ele>631.1</ele>
        <time>2017-07-02T12:12:51Z</time>
      </trkpt>
      <trkpt lat="42.42599" lon="0.09045">
        <ele>630.9</ele>
        <time>2017-07-02T12:12:52Z</time>
      </trkpt>
      <trkpt lat="42.42605" lon="0.09041">
        <ele>630.7</ele>
        <time>2017-07-02T12:12:53Z</time>
      </trkpt>
      <trkpt lat="42.42612" lon="0.09038">
        <ele>630.3</ele>
        <time>2017-07-02T12:12:54Z</time>
      </trkpt>
      <trkpt lat="42.42616" lon="0.09035">
        <ele>630.1</ele>
        <time>2017-07-02T12:12:55Z</time>
      </trkpt>
      <trkpt lat="42.42623" lon="0.09035">
        <ele>629.8</ele>
        <time>2017-07-02T12:12:56Z</time>
      </trkpt>
      <trkpt lat="42.42628" lon="0.09032">
        <ele>629.7</ele>
        <time>2017-07-02T12:12:57Z</time>
      </trkpt>
      <trkpt lat="42.42632" lon="0.09025">
        <ele>629.6</ele>
        <time>2017-07-02T12:12:58Z</time>
      </trkpt>
      <trkpt lat="42.42636" lon="0.09021">
        <ele>629.5</ele>
        <time>2017-07-02T12:12:59Z</time>
      </trkpt>
      <trkpt lat="42.42641" lon="0.09017">
        <ele>629.4</ele>
        <time>2017-07-02T12:13:00Z</time>
      </trkpt>
      <trkpt lat="42.42645" lon="0.09016">
        <ele>629.4</ele>
        <time>2017-07-02T12:13:01Z</time>
      </trkpt>
      <trkpt lat="42.42649" lon="0.09015">
        <ele>629.3</ele>
        <time>2017-07-02T12:13:02Z</time>
      </trkpt>
      <trkpt lat="42.42652" lon="0.09011">
        <ele>629.3</ele>
        <time>2017-07-02T12:13:03Z</time>
      </trkpt>
      <trkpt lat="42.42652" lon="0.09005">
        <ele>629.2</ele>
        <time>2017-07-02T12:13:04Z</time>
      </trkpt>
      <trkpt lat="42.42654" lon="0.09002">
        <ele>629.2</ele>
        <time>2017-07-02T12:13:05Z</time>
      </trkpt>
      <trkpt lat="42.42658" lon="0.09">
        <ele>629.2</ele>
        <time>2017-07-02T12:13:06Z</time>
      </trkpt>
      <trkpt lat="42.42663" lon="0.09001">
        <ele>629.1</ele>
        <time>2017-07-02T12:13:07Z</time>
      </trkpt>
      <trkpt lat="42.42667" lon="0.09003">
        <ele>629.1</ele>
        <time>2017-07-02T12:13:08Z</time>
      </trkpt>
      <trkpt lat="42.4267" lon="0.09002">
        <ele>629.1</ele>
        <time>2017-07-02T12:13:09Z</time>
      </trkpt>
      <trkpt lat="42.42674" lon="0.08999">
        <ele>629</ele>
        <time>2017-07-02T12:13:10Z</time>
      </trkpt>
      <trkpt lat="42.42677" lon="0.08994">
        <ele>628.9</ele>
        <time>2017-07-02T12:13:11Z</time>
      </trkpt>
      <trkpt lat="42.4268" lon="0.08991">
        <ele>628.9</ele>
        <time>2017-07-02T12:13:12Z</time>
      </trkpt>
      <trkpt lat="42.42683" lon="0.08988">
        <ele>628.8</ele>
        <time>2017-07-02T12:13:13Z</time>
      </trkpt>
      <trkpt lat="42.42687" lon="0.08985">
        <ele>628.8</ele>
        <time>2017-07-02T12:13:14Z</time>
      </trkpt>
      <trkpt lat="42.4269" lon="0.08982">
        <ele>628.7</ele>
        <time>2017-07-02T12:13:15Z</time>
      </trkpt>
      <trkpt lat="42.42694" lon="0.08978">
        <ele>628.6</ele>
        <time>2017-07-02T12:13:16Z</time>
      </trkpt>
      <trkpt lat="42.42697" lon="0.08975">
        <ele>628.5</ele>
        <time>2017-07-02T12:13:17Z</time>
      </trkpt>
      <trkpt lat="42.42699" lon="0.08971">
        <ele>628.5</ele>
        <time>2017-07-02T12:13:18Z</time>
      </trkpt>
      <trkpt lat="42.42702" lon="0.08967">
        <ele>628.4</ele>
        <time>2017-07-02T12:13:19Z</time>
      </trkpt>
      <trkpt lat="42.42705" lon="0.08962">
        <ele>628.3</ele>
        <time>2017-07-02T12:13:20Z</time>
      </trkpt>
      <trkpt lat="42.42706" lon="0.08959">
        <ele>628.2</ele>
        <time>2017-07-02T12:13:21Z</time>
      </trkpt>
      <trkpt lat="42.42707" lon="0.08955">
        <ele>628.1</ele>
        <time>2017-07-02T12:13:27Z</time>
      </trkpt>
      <trkpt lat="42.42709" lon="0.08952">
        <ele>628</ele>
        <time>2017-07-02T12:13:38Z</time>
      </trkpt>
      <trkpt lat="42.42712" lon="0.08951">
        <ele>627.9</ele>
        <time>2017-07-02T12:13:42Z</time>
      </trkpt>
      <trkpt lat="42.42715" lon="0.0895">
        <ele>627.8</ele>
        <time>2017-07-02T12:13:44Z</time>
      </trkpt>
      <trkpt lat="42.42719" lon="0.08946">
        <ele>627.6</ele>
        <time>2017-07-02T12:13:46Z</time>
      </trkpt>
      <trkpt lat="42.42722" lon="0.0894">
        <ele>627.4</ele>
        <time>2017-07-02T12:13:48Z</time>
      </trkpt>
      <trkpt lat="42.42723" lon="0.08936">
        <ele>627.2</ele>
        <time>2017-07-02T12:13:49Z</time>
      </trkpt>
      <trkpt lat="42.42724" lon="0.08933">
        <ele>627.1</ele>
        <time>2017-07-02T12:13:50Z</time>
      </trkpt>
      <trkpt lat="42.42724" lon="0.08929">
        <ele>626.9</ele>
        <time>2017-07-02T12:13:51Z</time>
      </trkpt>
      <trkpt lat="42.42725" lon="0.08922">
        <ele>626.6</ele>
        <time>2017-07-02T12:13:53Z</time>
      </trkpt>
      <trkpt lat="42.42727" lon="0.08917">
        <ele>626.2</ele>
        <time>2017-07-02T12:13:55Z</time>
      </trkpt>
      <trkpt lat="42.42728" lon="0.08909">
        <ele>625.7</ele>
        <time>2017-07-02T12:13:57Z</time>
      </trkpt>
      <trkpt lat="42.4273" lon="0.08904">
        <ele>625.3</ele>
        <time>2017-07-02T12:13:58Z</time>
      </trkpt>
      <trkpt lat="42.42731" lon="0.08898">
        <ele>624.9</ele>
        <time>2017-07-02T12:13:59Z</time>
      </trkpt>
      <trkpt lat="42.42732" lon="0.08893">
        <ele>624.5</ele>
        <time>2017-07-02T12:14:00Z</time>
      </trkpt>
      <trkpt lat="42.42734" lon="0.08888">
        <ele>624.1</ele>
        <time>2017-07-02T12:14:01Z</time>
      </trkpt>
      <trkpt lat="42.42735" lon="0.08883">
        <ele>623.7</ele>
        <time>2017-07-02T12:14:02Z</time>
      </trkpt>
      <trkpt lat="42.42736" lon="0.08879">
        <ele>623.1</ele>
        <time>2017-07-02T12:14:03Z</time>
      </trkpt>
      <trkpt lat="42.42737" lon="0.08875">
        <ele>622.7</ele>
        <time>2017-07-02T12:14:04Z</time>
      </trkpt>
      <trkpt lat="42.42738" lon="0.08871">
        <ele>622.2</ele>
        <time>2017-07-02T12:14:05Z</time>
      </trkpt>
      <trkpt lat="42.42738" lon="0.08867">
        <ele>621.7</ele>
        <time>2017-07-02T12:14:06Z</time>
      </trkpt>
      <trkpt lat="42.42737" lon="0.08863">
        <ele>621.3</ele>
        <time>2017-07-02T12:14:07Z</time>
      </trkpt>
      <trkpt lat="42.42737" lon="0.08858">
        <ele>620.8</ele>
        <time>2017-07-02T12:14:08Z</time>
      </trkpt>
      <trkpt lat="42.42736" lon="0.08853">
        <ele>620.3</ele>
        <time>2017-07-02T12:14:09Z</time>
      </trkpt>
      <trkpt lat="42.42735" lon="0.08849">
        <ele>619.7</ele>
        <time>2017-07-02T12:14:10Z</time>
      </trkpt>
      <trkpt lat="42.42734" lon="0.08844">
        <ele>619.2</ele>
        <time>2017-07-02T12:14:11Z</time>
      </trkpt>
      <trkpt lat="42.42733" lon="0.0884">
        <ele>618.6</ele>
        <time>2017-07-02T12:14:12Z</time>
      </trkpt>
      <trkpt lat="42.42732" lon="0.08835">
        <ele>618</ele>
        <time>2017-07-02T12:14:13Z</time>
      </trkpt>
      <trkpt lat="42.4273" lon="0.0883">
        <ele>617.3</ele>
        <time>2017-07-02T12:14:14Z</time>
      </trkpt>
      <trkpt lat="42.42728" lon="0.08825">
        <ele>616.6</ele>
        <time>2017-07-02T12:14:15Z</time>
      </trkpt>
      <trkpt lat="42.42725" lon="0.08821">
        <ele>615.9</ele>
        <time>2017-07-02T12:14:16Z</time>
      </trkpt>
      <trkpt lat="42.42723" lon="0.08816">
        <ele>615</ele>
        <time>2017-07-02T12:14:17Z</time>
      </trkpt>
      <trkpt lat="42.42718" lon="0.08806">
        <ele>613.6</ele>
        <time>2017-07-02T12:14:18Z</time>
      </trkpt>
      <trkpt lat="42.42717" lon="0.08799">
        <ele>612.7</ele>
        <time>2017-07-02T12:14:19Z</time>
      </trkpt>
      <trkpt lat="42.42714" lon="0.0879">
        <ele>611.1</ele>
        <time>2017-07-02T12:14:20Z</time>
      </trkpt>
      <trkpt lat="42.42716" lon="0.08787">
        <ele>610.5</ele>
        <time>2017-07-02T12:14:21Z</time>
      </trkpt>
      <trkpt lat="42.42713" lon="0.08784">
        <ele>609.6</ele>
        <time>2017-07-02T12:14:22Z</time>
      </trkpt>
      <trkpt lat="42.42709" lon="0.08777">
        <ele>608.6</ele>
        <time>2017-07-02T12:14:23Z</time>
      </trkpt>
      <trkpt lat="42.42707" lon="0.08768">
        <ele>607.7</ele>
        <time>2017-07-02T12:14:24Z</time>
      </trkpt>
      <trkpt lat="42.4271" lon="0.08761">
        <ele>606.7</ele>
        <time>2017-07-02T12:14:25Z</time>
      </trkpt>
      <trkpt lat="42.42706" lon="0.08753">
        <ele>605.6</ele>
        <time>2017-07-02T12:14:26Z</time>
      </trkpt>
      <trkpt lat="42.42706" lon="0.08745">
        <ele>604.8</ele>
        <time>2017-07-02T12:14:27Z</time>
      </trkpt>
      <trkpt lat="42.42704" lon="0.08737">
        <ele>603.9</ele>
        <time>2017-07-02T12:14:28Z</time>
      </trkpt>
      <trkpt lat="42.42703" lon="0.08731">
        <ele>603.3</ele>
        <time>2017-07-02T12:14:29Z</time>
      </trkpt>
      <trkpt lat="42.42705" lon="0.08722">
        <ele>602.4</ele>
        <time>2017-07-02T12:14:30Z</time>
      </trkpt>
      <trkpt lat="42.42707" lon="0.08714">
        <ele>601.7</ele>
        <time>2017-07-02T12:14:31Z</time>
      </trkpt>
      <trkpt lat="42.42711" lon="0.08708">
        <ele>601.2</ele>
        <time>2017-07-02T12:14:32Z</time>
      </trkpt>
      <trkpt lat="42.42715" lon="0.087">
        <ele>600.8</ele>
        <time>2017-07-02T12:14:33Z</time>
      </trkpt>
      <trkpt lat="42.42714" lon="0.0869">
        <ele>600.4</ele>
        <time>2017-07-02T12:14:34Z</time>
      </trkpt>
      <trkpt lat="42.42718" lon="0.08681">
        <ele>600</ele>
        <time>2017-07-02T12:14:35Z</time>
      </trkpt>
      <trkpt lat="42.42722" lon="0.08676">
        <ele>599.7</ele>
        <time>2017-07-02T12:14:36Z</time>
      </trkpt>
      <trkpt lat="42.42726" lon="0.0867">
        <ele>599.4</ele>
        <time>2017-07-02T12:14:37Z</time>
      </trkpt>
      <trkpt lat="42.42731" lon="0.08665">
        <ele>599.2</ele>
        <time>2017-07-02T12:14:38Z</time>
      </trkpt>
      <trkpt lat="42.42736" lon="0.0866">
        <ele>599</ele>
        <time>2017-07-02T12:14:39Z</time>
      </trkpt>
      <trkpt lat="42.42741" lon="0.08656">
        <ele>598.8</ele>
        <time>2017-07-02T12:14:40Z</time>
      </trkpt>
      <trkpt lat="42.42745" lon="0.0865">
        <ele>598.6</ele>
        <time>2017-07-02T12:14:41Z</time>
      </trkpt>
      <trkpt lat="42.42749" lon="0.08645">
        <ele>598.3</ele>
        <time>2017-07-02T12:14:42Z</time>
      </trkpt>
      <trkpt lat="42.42752" lon="0.08639">
        <ele>598</ele>
        <time>2017-07-02T12:14:43Z</time>
      </trkpt>
      <trkpt lat="42.42756" lon="0.08636">
        <ele>597.5</ele>
        <time>2017-07-02T12:14:44Z</time>
      </trkpt>
      <trkpt lat="42.4276" lon="0.08634">
        <ele>597.1</ele>
        <time>2017-07-02T12:14:45Z</time>
      </trkpt>
      <trkpt lat="42.42766" lon="0.08634">
        <ele>596.5</ele>
        <time>2017-07-02T12:14:46Z</time>
      </trkpt>
      <trkpt lat="42.42769" lon="0.08633">
        <ele>596.2</ele>
        <time>2017-07-02T12:14:47Z</time>
      </trkpt>
      <trkpt lat="42.42774" lon="0.08631">
        <ele>595.8</ele>
        <time>2017-07-02T12:14:48Z</time>
      </trkpt>
      <trkpt lat="42.4278" lon="0.0863">
        <ele>595.3</ele>
        <time>2017-07-02T12:14:49Z</time>
      </trkpt>
      <trkpt lat="42.42784" lon="0.08626">
        <ele>594.7</ele>
        <time>2017-07-02T12:14:50Z</time>
      </trkpt>
      <trkpt lat="42.42789" lon="0.08622">
        <ele>594.2</ele>
        <time>2017-07-02T12:14:51Z</time>
      </trkpt>
      <trkpt lat="42.42795" lon="0.08617">
        <ele>593.5</ele>
        <time>2017-07-02T12:14:52Z</time>
      </trkpt>
      <trkpt lat="42.42799" lon="0.08614">
        <ele>593.1</ele>
        <time>2017-07-02T12:14:53Z</time>
      </trkpt>
      <trkpt lat="42.42804" lon="0.08612">
        <ele>592.6</ele>
        <time>2017-07-02T12:14:54Z</time>
      </trkpt>
      <trkpt lat="42.4281" lon="0.0861">
        <ele>592.1</ele>
        <time>2017-07-02T12:14:55Z</time>
      </trkpt>
      <trkpt lat="42.42816" lon="0.08611">
        <ele>591.6</ele>
        <time>2017-07-02T12:14:56Z</time>
      </trkpt>
      <trkpt lat="42.42823" lon="0.08611">
        <ele>591</ele>
        <time>2017-07-02T12:14:57Z</time>
      </trkpt>
      <trkpt lat="42.42828" lon="0.08611">
        <ele>590.4</ele>
        <time>2017-07-02T12:14:58Z</time>
      </trkpt>
      <trkpt lat="42.42835" lon="0.08611">
        <ele>590</ele>
        <time>2017-07-02T12:14:59Z</time>
      </trkpt>
      <trkpt lat="42.42841" lon="0.08608">
        <ele>589.5</ele>
        <time>2017-07-02T12:15:00Z</time>
      </trkpt>
      <trkpt lat="42.42846" lon="0.08602">
        <ele>589.1</ele>
        <time>2017-07-02T12:15:01Z</time>
      </trkpt>
      <trkpt lat="42.42849" lon="0.08595">
        <ele>588.8</ele>
        <time>2017-07-02T12:15:02Z</time>
      </trkpt>
      <trkpt lat="42.42852" lon="0.08588">
        <ele>588.4</ele>
        <time>2017-07-02T12:15:03Z</time>
      </trkpt>
      <trkpt lat="42.42855" lon="0.0858">
        <ele>587.8</ele>
        <time>2017-07-02T12:15:04Z</time>
      </trkpt>
      <trkpt lat="42.42855" lon="0.08574">
        <ele>587.3</ele>
        <time>2017-07-02T12:15:05Z</time>
      </trkpt>
      <trkpt lat="42.42856" lon="0.08567">
        <ele>586.9</ele>
        <time>2017-07-02T12:15:06Z</time>
      </trkpt>
      <trkpt lat="42.42856" lon="0.0856">
        <ele>586.6</ele>
        <time>2017-07-02T12:15:07Z</time>
      </trkpt>
      <trkpt lat="42.42854" lon="0.08553">
        <ele>586.2</ele>
        <time>2017-07-02T12:15:08Z</time>
      </trkpt>
      <trkpt lat="42.42856" lon="0.08546">
        <ele>585.8</ele>
        <time>2017-07-02T12:15:09Z</time>
      </trkpt>
      <trkpt lat="42.42858" lon="0.0854">
        <ele>585.6</ele>
        <time>2017-07-02T12:15:10Z</time>
      </trkpt>
      <trkpt lat="42.42861" lon="0.08536">
        <ele>585.4</ele>
        <time>2017-07-02T12:15:11Z</time>
      </trkpt>
      <trkpt lat="42.42865" lon="0.08531">
        <ele>585.3</ele>
        <time>2017-07-02T12:15:12Z</time>
      </trkpt>
      <trkpt lat="42.42868" lon="0.08527">
        <ele>585.2</ele>
        <time>2017-07-02T12:15:13Z</time>
      </trkpt>
      <trkpt lat="42.42869" lon="0.08521">
        <ele>585.2</ele>
        <time>2017-07-02T12:15:14Z</time>
      </trkpt>
      <trkpt lat="42.4287" lon="0.08516">
        <ele>585.2</ele>
        <time>2017-07-02T12:15:15Z</time>
      </trkpt>
      <trkpt lat="42.42871" lon="0.08511">
        <ele>585.2</ele>
        <time>2017-07-02T12:15:16Z</time>
      </trkpt>
      <trkpt lat="42.42872" lon="0.08504">
        <ele>585.2</ele>
        <time>2017-07-02T12:15:17Z</time>
      </trkpt>
      <trkpt lat="42.42872" lon="0.08498">
        <ele>585.2</ele>
        <time>2017-07-02T12:15:18Z</time>
      </trkpt>
      <trkpt lat="42.42873" lon="0.08492">
        <ele>585.2</ele>
        <time>2017-07-02T12:15:19Z</time>
      </trkpt>
      <trkpt lat="42.42874" lon="0.08486">
        <ele>585.2</ele>
        <time>2017-07-02T12:15:20Z</time>
      </trkpt>
      <trkpt lat="42.42874" lon="0.0848">
        <ele>585.2</ele>
        <time>2017-07-02T12:15:21Z</time>
      </trkpt>
      <trkpt lat="42.42873" lon="0.08474">
        <ele>585.2</ele>
        <time>2017-07-02T12:15:22Z</time>
      </trkpt>
      <trkpt lat="42.42874" lon="0.0847">
        <ele>585.2</ele>
        <time>2017-07-02T12:15:23Z</time>
      </trkpt>
      <trkpt lat="42.42873" lon="0.08464">
        <ele>585.3</ele>
        <time>2017-07-02T12:15:24Z</time>
      </trkpt>
      <trkpt lat="42.42873" lon="0.08458">
        <ele>585.3</ele>
        <time>2017-07-02T12:15:25Z</time>
      </trkpt>
      <trkpt lat="42.42874" lon="0.08452">
        <ele>585.3</ele>
        <time>2017-07-02T12:15:26Z</time>
      </trkpt>
      <trkpt lat="42.42875" lon="0.08447">
        <ele>585.4</ele>
        <time>2017-07-02T12:15:27Z</time>
      </trkpt>
      <trkpt lat="42.42876" lon="0.08442">
        <ele>585.4</ele>
        <time>2017-07-02T12:15:28Z</time>
      </trkpt>
      <trkpt lat="42.42877" lon="0.08437">
        <ele>585.5</ele>
        <time>2017-07-02T12:15:29Z</time>
      </trkpt>
      <trkpt lat="42.42878" lon="0.08432">
        <ele>585.5</ele>
        <time>2017-07-02T12:15:30Z</time>
      </trkpt>
      <trkpt lat="42.42878" lon="0.08427">
        <ele>585.6</ele>
        <time>2017-07-02T12:15:31Z</time>
      </trkpt>
      <trkpt lat="42.42878" lon="0.08422">
        <ele>585.6</ele>
        <time>2017-07-02T12:15:32Z</time>
      </trkpt>
      <trkpt lat="42.42879" lon="0.08416">
        <ele>585.7</ele>
        <time>2017-07-02T12:15:33Z</time>
      </trkpt>
      <trkpt lat="42.42879" lon="0.08411">
        <ele>585.8</ele>
        <time>2017-07-02T12:15:34Z</time>
      </trkpt>
      <trkpt lat="42.4288" lon="0.08406">
        <ele>585.8</ele>
        <time>2017-07-02T12:15:35Z</time>
      </trkpt>
      <trkpt lat="42.42881" lon="0.08401">
        <ele>585.9</ele>
        <time>2017-07-02T12:15:36Z</time>
      </trkpt>
      <trkpt lat="42.42881" lon="0.08396">
        <ele>586</ele>
        <time>2017-07-02T12:15:37Z</time>
      </trkpt>
      <trkpt lat="42.42882" lon="0.08391">
        <ele>586</ele>
        <time>2017-07-02T12:15:38Z</time>
      </trkpt>
      <trkpt lat="42.42882" lon="0.08385">
        <ele>586.1</ele>
        <time>2017-07-02T12:15:39Z</time>
      </trkpt>
      <trkpt lat="42.42883" lon="0.08379">
        <ele>586.2</ele>
        <time>2017-07-02T12:15:40Z</time>
      </trkpt>
      <trkpt lat="42.42883" lon="0.08373">
        <ele>586.3</ele>
        <time>2017-07-02T12:15:41Z</time>
      </trkpt>
      <trkpt lat="42.42883" lon="0.08368">
        <ele>586.4</ele>
        <time>2017-07-02T12:15:42Z</time>
      </trkpt>
      <trkpt lat="42.42883" lon="0.08362">
        <ele>586.4</ele>
        <time>2017-07-02T12:15:43Z</time>
      </trkpt>
      <trkpt lat="42.42883" lon="0.08357">
        <ele>586.4</ele>
        <time>2017-07-02T12:15:44Z</time>
      </trkpt>
      <trkpt lat="42.42883" lon="0.08352">
        <ele>586.5</ele>
        <time>2017-07-02T12:15:45Z</time>
      </trkpt>
      <trkpt lat="42.42882" lon="0.08347">
        <ele>586.5</ele>
        <time>2017-07-02T12:15:46Z</time>
      </trkpt>
      <trkpt lat="42.42881" lon="0.08341">
        <ele>586.6</ele>
        <time>2017-07-02T12:15:47Z</time>
      </trkpt>
      <trkpt lat="42.42881" lon="0.08336">
        <ele>586.6</ele>
        <time>2017-07-02T12:15:48Z</time>
      </trkpt>
      <trkpt lat="42.42881" lon="0.0833">
        <ele>586.7</ele>
        <time>2017-07-02T12:15:49Z</time>
      </trkpt>
      <trkpt lat="42.42881" lon="0.08325">
        <ele>586.7</ele>
        <time>2017-07-02T12:15:50Z</time>
      </trkpt>
      <trkpt lat="42.42882" lon="0.08319">
        <ele>586.8</ele>
        <time>2017-07-02T12:15:51Z</time>
      </trkpt>
      <trkpt lat="42.42882" lon="0.08313">
        <ele>586.8</ele>
        <time>2017-07-02T12:15:52Z</time>
      </trkpt>
      <trkpt lat="42.42883" lon="0.08308">
        <ele>586.9</ele>
        <time>2017-07-02T12:15:53Z</time>
      </trkpt>
      <trkpt lat="42.42883" lon="0.08302">
        <ele>586.9</ele>
        <time>2017-07-02T12:15:54Z</time>
      </trkpt>
      <trkpt lat="42.42883" lon="0.08296">
        <ele>587</ele>
        <time>2017-07-02T12:15:55Z</time>
      </trkpt>
      <trkpt lat="42.42882" lon="0.0829">
        <ele>587.1</ele>
        <time>2017-07-02T12:15:56Z</time>
      </trkpt>
      <trkpt lat="42.42881" lon="0.08285">
        <ele>587.1</ele>
        <time>2017-07-02T12:15:57Z</time>
      </trkpt>
      <trkpt lat="42.4288" lon="0.0828">
        <ele>587.2</ele>
        <time>2017-07-02T12:15:58Z</time>
      </trkpt>
      <trkpt lat="42.42879" lon="0.08275">
        <ele>587.4</ele>
        <time>2017-07-02T12:15:59Z</time>
      </trkpt>
      <trkpt lat="42.42878" lon="0.08269">
        <ele>587.5</ele>
        <time>2017-07-02T12:16:00Z</time>
      </trkpt>
      <trkpt lat="42.42876" lon="0.08265">
        <ele>587.6</ele>
        <time>2017-07-02T12:16:01Z</time>
      </trkpt>
      <trkpt lat="42.42875" lon="0.0826">
        <ele>587.7</ele>
        <time>2017-07-02T12:16:02Z</time>
      </trkpt>
      <trkpt lat="42.42873" lon="0.08256">
        <ele>587.8</ele>
        <time>2017-07-02T12:16:03Z</time>
      </trkpt>
      <trkpt lat="42.42872" lon="0.08252">
        <ele>587.8</ele>
        <time>2017-07-02T12:16:04Z</time>
      </trkpt>
      <trkpt lat="42.4287" lon="0.08249">
        <ele>587.9</ele>
        <time>2017-07-02T12:16:05Z</time>
      </trkpt>
      <trkpt lat="42.42869" lon="0.08245">
        <ele>588</ele>
        <time>2017-07-02T12:16:06Z</time>
      </trkpt>
      <trkpt lat="42.42868" lon="0.08241">
        <ele>588</ele>
        <time>2017-07-02T12:16:07Z</time>
      </trkpt>
      <trkpt lat="42.42866" lon="0.08235">
        <ele>588.2</ele>
        <time>2017-07-02T12:16:09Z</time>
      </trkpt>
      <trkpt lat="42.42865" lon="0.08229">
        <ele>588.2</ele>
        <time>2017-07-02T12:16:11Z</time>
      </trkpt>
      <trkpt lat="42.42865" lon="0.08224">
        <ele>588.3</ele>
        <time>2017-07-02T12:16:13Z</time>
      </trkpt>
      <trkpt lat="42.42866" lon="0.08219">
        <ele>588.3</ele>
        <time>2017-07-02T12:16:14Z</time>
      </trkpt>
      <trkpt lat="42.42868" lon="0.08213">
        <ele>588.1</ele>
        <time>2017-07-02T12:16:15Z</time>
      </trkpt>
      <trkpt lat="42.42869" lon="0.08207">
        <ele>587.9</ele>
        <time>2017-07-02T12:16:16Z</time>
      </trkpt>
      <trkpt lat="42.42871" lon="0.08203">
        <ele>587.7</ele>
        <time>2017-07-02T12:16:17Z</time>
      </trkpt>
      <trkpt lat="42.42873" lon="0.08199">
        <ele>587.5</ele>
        <time>2017-07-02T12:16:18Z</time>
      </trkpt>
      <trkpt lat="42.42875" lon="0.08195">
        <ele>587.3</ele>
        <time>2017-07-02T12:16:19Z</time>
      </trkpt>
      <trkpt lat="42.42878" lon="0.0819">
        <ele>587.3</ele>
        <time>2017-07-02T12:16:20Z</time>
      </trkpt>
      <trkpt lat="42.4288" lon="0.08187">
        <ele>587.2</ele>
        <time>2017-07-02T12:16:21Z</time>
      </trkpt>
      <trkpt lat="42.42882" lon="0.08184">
        <ele>587.1</ele>
        <time>2017-07-02T12:16:22Z</time>
      </trkpt>
      <trkpt lat="42.42884" lon="0.08182">
        <ele>587.1</ele>
        <time>2017-07-02T12:16:23Z</time>
      </trkpt>
      <trkpt lat="42.42887" lon="0.0818">
        <ele>587</ele>
        <time>2017-07-02T12:16:24Z</time>
      </trkpt>
      <trkpt lat="42.42891" lon="0.08177">
        <ele>587</ele>
        <time>2017-07-02T12:16:26Z</time>
      </trkpt>
      <trkpt lat="42.42895" lon="0.08174">
        <ele>587</ele>
        <time>2017-07-02T12:16:28Z</time>
      </trkpt>
      <trkpt lat="42.42898" lon="0.08172">
        <ele>587</ele>
        <time>2017-07-02T12:16:30Z</time>
      </trkpt>
      <trkpt lat="42.42901" lon="0.08172">
        <ele>587</ele>
        <time>2017-07-02T12:16:32Z</time>
      </trkpt>
      <trkpt lat="42.42905" lon="0.08174">
        <ele>587</ele>
        <time>2017-07-02T12:16:34Z</time>
      </trkpt>
      <trkpt lat="42.42909" lon="0.08178">
        <ele>587</ele>
        <time>2017-07-02T12:16:36Z</time>
      </trkpt>
      <trkpt lat="42.42914" lon="0.08181">
        <ele>587</ele>
        <time>2017-07-02T12:16:38Z</time>
      </trkpt>
      <trkpt lat="42.42918" lon="0.08183">
        <ele>587</ele>
        <time>2017-07-02T12:16:40Z</time>
      </trkpt>
      <trkpt lat="42.42921" lon="0.08184">
        <ele>586.8</ele>
        <time>2017-07-02T12:16:41Z</time>
      </trkpt>
      <trkpt lat="42.42924" lon="0.08186">
        <ele>586.6</ele>
        <time>2017-07-02T12:16:42Z</time>
      </trkpt>
      <trkpt lat="42.42926" lon="0.08187">
        <ele>586.5</ele>
        <time>2017-07-02T12:16:43Z</time>
      </trkpt>
      <trkpt lat="42.42929" lon="0.08189">
        <ele>586.5</ele>
        <time>2017-07-02T12:16:44Z</time>
      </trkpt>
      <trkpt lat="42.42932" lon="0.0819">
        <ele>586.5</ele>
        <time>2017-07-02T12:16:45Z</time>
      </trkpt>
      <trkpt lat="42.42935" lon="0.08192">
        <ele>586.5</ele>
        <time>2017-07-02T12:16:46Z</time>
      </trkpt>
      <trkpt lat="42.42938" lon="0.08193">
        <ele>586.6</ele>
        <time>2017-07-02T12:16:47Z</time>
      </trkpt>
      <trkpt lat="42.42941" lon="0.08195">
        <ele>586.7</ele>
        <time>2017-07-02T12:16:48Z</time>
      </trkpt>
      <trkpt lat="42.42945" lon="0.08197">
        <ele>586.8</ele>
        <time>2017-07-02T12:16:49Z</time>
      </trkpt>
      <trkpt lat="42.42948" lon="0.08198">
        <ele>586.8</ele>
        <time>2017-07-02T12:16:50Z</time>
      </trkpt>
      <trkpt lat="42.42952" lon="0.082">
        <ele>586.9</ele>
        <time>2017-07-02T12:16:51Z</time>
      </trkpt>
      <trkpt lat="42.42956" lon="0.08202">
        <ele>587</ele>
        <time>2017-07-02T12:16:52Z</time>
      </trkpt>
      <trkpt lat="42.42959" lon="0.08205">
        <ele>586.6</ele>
        <time>2017-07-02T12:16:53Z</time>
      </trkpt>
      <trkpt lat="42.42963" lon="0.08207">
        <ele>585.7</ele>
        <time>2017-07-02T12:16:54Z</time>
      </trkpt>
      <trkpt lat="42.42967" lon="0.08209">
        <ele>584.9</ele>
        <time>2017-07-02T12:16:55Z</time>
      </trkpt>
      <trkpt lat="42.4297" lon="0.08212">
        <ele>584.2</ele>
        <time>2017-07-02T12:16:56Z</time>
      </trkpt>
      <trkpt lat="42.42974" lon="0.08214">
        <ele>583.5</ele>
        <time>2017-07-02T12:16:57Z</time>
      </trkpt>
      <trkpt lat="42.42978" lon="0.08217">
        <ele>582.9</ele>
        <time>2017-07-02T12:16:58Z</time>
      </trkpt>
      <trkpt lat="42.42982" lon="0.08219">
        <ele>582.5</ele>
        <time>2017-07-02T12:16:59Z</time>
      </trkpt>
      <trkpt lat="42.42986" lon="0.08222">
        <ele>582.4</ele>
        <time>2017-07-02T12:17:00Z</time>
      </trkpt>
      <trkpt lat="42.4299" lon="0.08225">
        <ele>582.2</ele>
        <time>2017-07-02T12:17:01Z</time>
      </trkpt>
      <trkpt lat="42.42994" lon="0.08228">
        <ele>582.1</ele>
        <time>2017-07-02T12:17:02Z</time>
      </trkpt>
      <trkpt lat="42.42998" lon="0.08232">
        <ele>581.9</ele>
        <time>2017-07-02T12:17:03Z</time>
      </trkpt>
      <trkpt lat="42.43002" lon="0.08235">
        <ele>581.8</ele>
        <time>2017-07-02T12:17:04Z</time>
      </trkpt>
      <trkpt lat="42.43005" lon="0.08238">
        <ele>581.6</ele>
        <time>2017-07-02T12:17:05Z</time>
      </trkpt>
      <trkpt lat="42.4301" lon="0.08241">
        <ele>581.5</ele>
        <time>2017-07-02T12:17:06Z</time>
      </trkpt>
      <trkpt lat="42.43014" lon="0.08245">
        <ele>581.3</ele>
        <time>2017-07-02T12:17:07Z</time>
      </trkpt>
      <trkpt lat="42.43019" lon="0.08247">
        <ele>581.2</ele>
        <time>2017-07-02T12:17:08Z</time>
      </trkpt>
      <trkpt lat="42.43023" lon="0.0825">
        <ele>581</ele>
        <time>2017-07-02T12:17:09Z</time>
      </trkpt>
      <trkpt lat="42.43029" lon="0.08253">
        <ele>580.9</ele>
        <time>2017-07-02T12:17:10Z</time>
      </trkpt>
      <trkpt lat="42.43033" lon="0.08255">
        <ele>580.8</ele>
        <time>2017-07-02T12:17:11Z</time>
      </trkpt>
      <trkpt lat="42.43038" lon="0.08258">
        <ele>580.7</ele>
        <time>2017-07-02T12:17:12Z</time>
      </trkpt>
      <trkpt lat="42.43043" lon="0.0826">
        <ele>580.6</ele>
        <time>2017-07-02T12:17:13Z</time>
      </trkpt>
      <trkpt lat="42.43048" lon="0.08262">
        <ele>580.4</ele>
        <time>2017-07-02T12:17:14Z</time>
      </trkpt>
      <trkpt lat="42.43053" lon="0.08265">
        <ele>580.3</ele>
        <time>2017-07-02T12:17:15Z</time>
      </trkpt>
      <trkpt lat="42.43057" lon="0.08267">
        <ele>580.2</ele>
        <time>2017-07-02T12:17:16Z</time>
      </trkpt>
      <trkpt lat="42.43062" lon="0.08269">
        <ele>580.1</ele>
        <time>2017-07-02T12:17:17Z</time>
      </trkpt>
      <trkpt lat="42.43066" lon="0.08271">
        <ele>580</ele>
        <time>2017-07-02T12:17:18Z</time>
      </trkpt>
      <trkpt lat="42.4307" lon="0.08274">
        <ele>580</ele>
        <time>2017-07-02T12:17:19Z</time>
      </trkpt>
      <trkpt lat="42.43075" lon="0.08277">
        <ele>579.9</ele>
        <time>2017-07-02T12:17:20Z</time>
      </trkpt>
      <trkpt lat="42.43079" lon="0.0828">
        <ele>579.8</ele>
        <time>2017-07-02T12:17:21Z</time>
      </trkpt>
      <trkpt lat="42.43084" lon="0.08283">
        <ele>579.7</ele>
        <time>2017-07-02T12:17:22Z</time>
      </trkpt>
      <trkpt lat="42.4309" lon="0.08286">
        <ele>579.6</ele>
        <time>2017-07-02T12:17:23Z</time>
      </trkpt>
      <trkpt lat="42.43095" lon="0.08289">
        <ele>579.5</ele>
        <time>2017-07-02T12:17:24Z</time>
      </trkpt>
      <trkpt lat="42.431" lon="0.08292">
        <ele>579.4</ele>
        <time>2017-07-02T12:17:25Z</time>
      </trkpt>
      <trkpt lat="42.43105" lon="0.08295">
        <ele>579.3</ele>
        <time>2017-07-02T12:17:26Z</time>
      </trkpt>
      <trkpt lat="42.43111" lon="0.08299">
        <ele>579.2</ele>
        <time>2017-07-02T12:17:27Z</time>
      </trkpt>
      <trkpt lat="42.43116" lon="0.08302">
        <ele>579.2</ele>
        <time>2017-07-02T12:17:28Z</time>
      </trkpt>
      <trkpt lat="42.43121" lon="0.08305">
        <ele>579.1</ele>
        <time>2017-07-02T12:17:29Z</time>
      </trkpt>
      <trkpt lat="42.43127" lon="0.08308">
        <ele>579</ele>
        <time>2017-07-02T12:17:30Z</time>
      </trkpt>
      <trkpt lat="42.43132" lon="0.08311">
        <ele>578.9</ele>
        <time>2017-07-02T12:17:31Z</time>
      </trkpt>
      <trkpt lat="42.43137" lon="0.08314">
        <ele>578.8</ele>
        <time>2017-07-02T12:17:32Z</time>
      </trkpt>
      <trkpt lat="42.43142" lon="0.08317">
        <ele>578.8</ele>
        <time>2017-07-02T12:17:33Z</time>
      </trkpt>
      <trkpt lat="42.43148" lon="0.0832">
        <ele>578.7</ele>
        <time>2017-07-02T12:17:34Z</time>
      </trkpt>
      <trkpt lat="42.43153" lon="0.08323">
        <ele>578.6</ele>
        <time>2017-07-02T12:17:35Z</time>
      </trkpt>
      <trkpt lat="42.43157" lon="0.08326">
        <ele>578.5</ele>
        <time>2017-07-02T12:17:36Z</time>
      </trkpt>
      <trkpt lat="42.43162" lon="0.08328">
        <ele>578.5</ele>
        <time>2017-07-02T12:17:37Z</time>
      </trkpt>
      <trkpt lat="42.43166" lon="0.08331">
        <ele>578.4</ele>
        <time>2017-07-02T12:17:38Z</time>
      </trkpt>
      <trkpt lat="42.43171" lon="0.08334">
        <ele>578.3</ele>
        <time>2017-07-02T12:17:39Z</time>
      </trkpt>
      <trkpt lat="42.43175" lon="0.08337">
        <ele>578.3</ele>
        <time>2017-07-02T12:17:40Z</time>
      </trkpt>
      <trkpt lat="42.4318" lon="0.0834">
        <ele>578.2</ele>
        <time>2017-07-02T12:17:41Z</time>
      </trkpt>
      <trkpt lat="42.43185" lon="0.08343">
        <ele>578.1</ele>
        <time>2017-07-02T12:17:42Z</time>
      </trkpt>
      <trkpt lat="42.43189" lon="0.08346">
        <ele>578</ele>
        <time>2017-07-02T12:17:43Z</time>
      </trkpt>
      <trkpt lat="42.43194" lon="0.08349">
        <ele>578</ele>
        <time>2017-07-02T12:17:44Z</time>
      </trkpt>
      <trkpt lat="42.43198" lon="0.08352">
        <ele>577.9</ele>
        <time>2017-07-02T12:17:45Z</time>
      </trkpt>
      <trkpt lat="42.43203" lon="0.08355">
        <ele>577.8</ele>
        <time>2017-07-02T12:17:46Z</time>
      </trkpt>
      <trkpt lat="42.43208" lon="0.08357">
        <ele>577.8</ele>
        <time>2017-07-02T12:17:47Z</time>
      </trkpt>
      <trkpt lat="42.43213" lon="0.08359">
        <ele>577.7</ele>
        <time>2017-07-02T12:17:48Z</time>
      </trkpt>
      <trkpt lat="42.43218" lon="0.08362">
        <ele>577.6</ele>
        <time>2017-07-02T12:17:49Z</time>
      </trkpt>
      <trkpt lat="42.43221" lon="0.08365">
        <ele>577.5</ele>
        <time>2017-07-02T12:17:50Z</time>
      </trkpt>
      <trkpt lat="42.43226" lon="0.08368">
        <ele>577.4</ele>
        <time>2017-07-02T12:17:51Z</time>
      </trkpt>
      <trkpt lat="42.43229" lon="0.08373">
        <ele>577.4</ele>
        <time>2017-07-02T12:17:52Z</time>
      </trkpt>
      <trkpt lat="42.43234" lon="0.08374">
        <ele>577.3</ele>
        <time>2017-07-02T12:17:53Z</time>
      </trkpt>
      <trkpt lat="42.43239" lon="0.08375">
        <ele>577.2</ele>
        <time>2017-07-02T12:17:54Z</time>
      </trkpt>
      <trkpt lat="42.43244" lon="0.08377">
        <ele>577.1</ele>
        <time>2017-07-02T12:17:55Z</time>
      </trkpt>
      <trkpt lat="42.43249" lon="0.08379">
        <ele>577</ele>
        <time>2017-07-02T12:17:56Z</time>
      </trkpt>
      <trkpt lat="42.43253" lon="0.08381">
        <ele>577</ele>
        <time>2017-07-02T12:17:57Z</time>
      </trkpt>
      <trkpt lat="42.43258" lon="0.08384">
        <ele>577</ele>
        <time>2017-07-02T12:17:58Z</time>
      </trkpt>
      <trkpt lat="42.43261" lon="0.08388">
        <ele>576.9</ele>
        <time>2017-07-02T12:17:59Z</time>
      </trkpt>
      <trkpt lat="42.43265" lon="0.08392">
        <ele>576.8</ele>
        <time>2017-07-02T12:18:00Z</time>
      </trkpt>
      <trkpt lat="42.43268" lon="0.08398">
        <ele>576.6</ele>
        <time>2017-07-02T12:18:01Z</time>
      </trkpt>
      <trkpt lat="42.43271" lon="0.08404">
        <ele>576.4</ele>
        <time>2017-07-02T12:18:02Z</time>
      </trkpt>
      <trkpt lat="42.43274" lon="0.0841">
        <ele>576.3</ele>
        <time>2017-07-02T12:18:03Z</time>
      </trkpt>
      <trkpt lat="42.43278" lon="0.08416">
        <ele>576.1</ele>
        <time>2017-07-02T12:18:04Z</time>
      </trkpt>
      <trkpt lat="42.43283" lon="0.08421">
        <ele>576</ele>
        <time>2017-07-02T12:18:05Z</time>
      </trkpt>
      <trkpt lat="42.43287" lon="0.08426">
        <ele>576</ele>
        <time>2017-07-02T12:18:06Z</time>
      </trkpt>
      <trkpt lat="42.43292" lon="0.0843">
        <ele>576</ele>
        <time>2017-07-02T12:18:07Z</time>
      </trkpt>
      <trkpt lat="42.43297" lon="0.08434">
        <ele>576</ele>
        <time>2017-07-02T12:18:08Z</time>
      </trkpt>
      <trkpt lat="42.43302" lon="0.08438">
        <ele>576</ele>
        <time>2017-07-02T12:18:09Z</time>
      </trkpt>
      <trkpt lat="42.43307" lon="0.08443">
        <ele>576</ele>
        <time>2017-07-02T12:18:10Z</time>
      </trkpt>
      <trkpt lat="42.43311" lon="0.08448">
        <ele>576</ele>
        <time>2017-07-02T12:18:11Z</time>
      </trkpt>
      <trkpt lat="42.43316" lon="0.08452">
        <ele>576</ele>
        <time>2017-07-02T12:18:12Z</time>
      </trkpt>
      <trkpt lat="42.43321" lon="0.08456">
        <ele>576</ele>
        <time>2017-07-02T12:18:13Z</time>
      </trkpt>
      <trkpt lat="42.43325" lon="0.08461">
        <ele>576</ele>
        <time>2017-07-02T12:18:14Z</time>
      </trkpt>
      <trkpt lat="42.43329" lon="0.08466">
        <ele>576</ele>
        <time>2017-07-02T12:18:15Z</time>
      </trkpt>
      <trkpt lat="42.43329" lon="0.08475">
        <ele>576</ele>
        <time>2017-07-02T12:18:16Z</time>
      </trkpt>
      <trkpt lat="42.43328" lon="0.08482">
        <ele>576.2</ele>
        <time>2017-07-02T12:18:17Z</time>
      </trkpt>
      <trkpt lat="42.43325" lon="0.0849">
        <ele>576.4</ele>
        <time>2017-07-02T12:18:18Z</time>
      </trkpt>
      <trkpt lat="42.43322" lon="0.08495">
        <ele>576.5</ele>
        <time>2017-07-02T12:18:19Z</time>
      </trkpt>
      <trkpt lat="42.43319" lon="0.08499">
        <ele>576.5</ele>
        <time>2017-07-02T12:18:20Z</time>
      </trkpt>
      <trkpt lat="42.43316" lon="0.08504">
        <ele>576.6</ele>
        <time>2017-07-02T12:18:21Z</time>
      </trkpt>
      <trkpt lat="42.43311" lon="0.08507">
        <ele>576.6</ele>
        <time>2017-07-02T12:18:22Z</time>
      </trkpt>
      <trkpt lat="42.43308" lon="0.08511">
        <ele>576.6</ele>
        <time>2017-07-02T12:18:23Z</time>
      </trkpt>
      <trkpt lat="42.43305" lon="0.08515">
        <ele>576.3</ele>
        <time>2017-07-02T12:18:24Z</time>
      </trkpt>
      <trkpt lat="42.43302" lon="0.08519">
        <ele>576.1</ele>
        <time>2017-07-02T12:18:25Z</time>
      </trkpt>
      <trkpt lat="42.43299" lon="0.08523">
        <ele>576</ele>
        <time>2017-07-02T12:18:26Z</time>
      </trkpt>
      <trkpt lat="42.43295" lon="0.08527">
        <ele>576</ele>
        <time>2017-07-02T12:18:27Z</time>
      </trkpt>
      <trkpt lat="42.43292" lon="0.08531">
        <ele>576</ele>
        <time>2017-07-02T12:18:28Z</time>
      </trkpt>
      <trkpt lat="42.43289" lon="0.08535">
        <ele>576</ele>
        <time>2017-07-02T12:18:29Z</time>
      </trkpt>
      <trkpt lat="42.43285" lon="0.08539">
        <ele>576</ele>
        <time>2017-07-02T12:18:30Z</time>
      </trkpt>
      <trkpt lat="42.43282" lon="0.08543">
        <ele>576</ele>
        <time>2017-07-02T12:18:31Z</time>
      </trkpt>
      <trkpt lat="42.43279" lon="0.08548">
        <ele>576</ele>
        <time>2017-07-02T12:18:32Z</time>
      </trkpt>
      <trkpt lat="42.43275" lon="0.08553">
        <ele>576</ele>
        <time>2017-07-02T12:18:33Z</time>
      </trkpt>
      <trkpt lat="42.43272" lon="0.08558">
        <ele>575.9</ele>
        <time>2017-07-02T12:18:34Z</time>
      </trkpt>
      <trkpt lat="42.4327" lon="0.08565">
        <ele>575.9</ele>
        <time>2017-07-02T12:18:35Z</time>
      </trkpt>
      <trkpt lat="42.43268" lon="0.08571">
        <ele>575.8</ele>
        <time>2017-07-02T12:18:36Z</time>
      </trkpt>
      <trkpt lat="42.43265" lon="0.08578">
        <ele>575.8</ele>
        <time>2017-07-02T12:18:37Z</time>
      </trkpt>
      <trkpt lat="42.43263" lon="0.08585">
        <ele>575.7</ele>
        <time>2017-07-02T12:18:38Z</time>
      </trkpt>
      <trkpt lat="42.4326" lon="0.08591">
        <ele>575.6</ele>
        <time>2017-07-02T12:18:39Z</time>
      </trkpt>
      <trkpt lat="42.43257" lon="0.08596">
        <ele>575.6</ele>
        <time>2017-07-02T12:18:40Z</time>
      </trkpt>
      <trkpt lat="42.43254" lon="0.08602">
        <ele>575.5</ele>
        <time>2017-07-02T12:18:41Z</time>
      </trkpt>
      <trkpt lat="42.4325" lon="0.08608">
        <ele>575.4</ele>
        <time>2017-07-02T12:18:42Z</time>
      </trkpt>
      <trkpt lat="42.43248" lon="0.08613">
        <ele>575.4</ele>
        <time>2017-07-02T12:18:43Z</time>
      </trkpt>
      <trkpt lat="42.43245" lon="0.08618">
        <ele>575.3</ele>
        <time>2017-07-02T12:18:44Z</time>
      </trkpt>
      <trkpt lat="42.43242" lon="0.08624">
        <ele>575.1</ele>
        <time>2017-07-02T12:18:45Z</time>
      </trkpt>
      <trkpt lat="42.43239" lon="0.0863">
        <ele>574.8</ele>
        <time>2017-07-02T12:18:46Z</time>
      </trkpt>
      <trkpt lat="42.43236" lon="0.08635">
        <ele>574.4</ele>
        <time>2017-07-02T12:18:47Z</time>
      </trkpt>
      <trkpt lat="42.43234" lon="0.08641">
        <ele>574.1</ele>
        <time>2017-07-02T12:18:48Z</time>
      </trkpt>
      <trkpt lat="42.43231" lon="0.08646">
        <ele>573.9</ele>
        <time>2017-07-02T12:18:49Z</time>
      </trkpt>
      <trkpt lat="42.43228" lon="0.08652">
        <ele>573.8</ele>
        <time>2017-07-02T12:18:50Z</time>
      </trkpt>
      <trkpt lat="42.43225" lon="0.08658">
        <ele>573.6</ele>
        <time>2017-07-02T12:18:51Z</time>
      </trkpt>
      <trkpt lat="42.43222" lon="0.08664">
        <ele>573.5</ele>
        <time>2017-07-02T12:18:52Z</time>
      </trkpt>
      <trkpt lat="42.43219" lon="0.08669">
        <ele>573.4</ele>
        <time>2017-07-02T12:18:53Z</time>
      </trkpt>
      <trkpt lat="42.43217" lon="0.08675">
        <ele>573.3</ele>
        <time>2017-07-02T12:18:54Z</time>
      </trkpt>
      <trkpt lat="42.43214" lon="0.0868">
        <ele>573.3</ele>
        <time>2017-07-02T12:18:55Z</time>
      </trkpt>
      <trkpt lat="42.43211" lon="0.08685">
        <ele>573.2</ele>
        <time>2017-07-02T12:18:56Z</time>
      </trkpt>
      <trkpt lat="42.43208" lon="0.0869">
        <ele>573.2</ele>
        <time>2017-07-02T12:18:57Z</time>
      </trkpt>
      <trkpt lat="42.43206" lon="0.08695">
        <ele>573.2</ele>
        <time>2017-07-02T12:18:58Z</time>
      </trkpt>
      <trkpt lat="42.43204" lon="0.087">
        <ele>573.2</ele>
        <time>2017-07-02T12:18:59Z</time>
      </trkpt>
      <trkpt lat="42.43201" lon="0.08705">
        <ele>573.1</ele>
        <time>2017-07-02T12:19:00Z</time>
      </trkpt>
      <trkpt lat="42.43199" lon="0.0871">
        <ele>573.1</ele>
        <time>2017-07-02T12:19:01Z</time>
      </trkpt>
      <trkpt lat="42.43196" lon="0.08715">
        <ele>573.1</ele>
        <time>2017-07-02T12:19:02Z</time>
      </trkpt>
      <trkpt lat="42.43194" lon="0.0872">
        <ele>573.1</ele>
        <time>2017-07-02T12:19:03Z</time>
      </trkpt>
      <trkpt lat="42.43191" lon="0.08725">
        <ele>573.1</ele>
        <time>2017-07-02T12:19:04Z</time>
      </trkpt>
      <trkpt lat="42.43188" lon="0.08731">
        <ele>573.1</ele>
        <time>2017-07-02T12:19:05Z</time>
      </trkpt>
      <trkpt lat="42.43185" lon="0.08736">
        <ele>573</ele>
        <time>2017-07-02T12:19:06Z</time>
      </trkpt>
      <trkpt lat="42.43182" lon="0.08741">
        <ele>573</ele>
        <time>2017-07-02T12:19:07Z</time>
      </trkpt>
      <trkpt lat="42.43179" lon="0.08746">
        <ele>573</ele>
        <time>2017-07-02T12:19:08Z</time>
      </trkpt>
      <trkpt lat="42.43176" lon="0.08751">
        <ele>572.9</ele>
        <time>2017-07-02T12:19:09Z</time>
      </trkpt>
      <trkpt lat="42.43172" lon="0.08756">
        <ele>572.9</ele>
        <time>2017-07-02T12:19:10Z</time>
      </trkpt>
      <trkpt lat="42.43168" lon="0.08759">
        <ele>572.9</ele>
        <time>2017-07-02T12:19:11Z</time>
      </trkpt>
      <trkpt lat="42.43162" lon="0.08761">
        <ele>572.8</ele>
        <time>2017-07-02T12:19:12Z</time>
      </trkpt>
      <trkpt lat="42.43157" lon="0.08763">
        <ele>572.8</ele>
        <time>2017-07-02T12:19:13Z</time>
      </trkpt>
      <trkpt lat="42.43151" lon="0.08764">
        <ele>572.7</ele>
        <time>2017-07-02T12:19:14Z</time>
      </trkpt>
      <trkpt lat="42.43145" lon="0.08765">
        <ele>572.6</ele>
        <time>2017-07-02T12:19:15Z</time>
      </trkpt>
      <trkpt lat="42.43139" lon="0.08767">
        <ele>572.5</ele>
        <time>2017-07-02T12:19:16Z</time>
      </trkpt>
      <trkpt lat="42.43133" lon="0.08769">
        <ele>572.5</ele>
        <time>2017-07-02T12:19:17Z</time>
      </trkpt>
      <trkpt lat="42.43128" lon="0.08773">
        <ele>572.4</ele>
        <time>2017-07-02T12:19:18Z</time>
      </trkpt>
      <trkpt lat="42.43124" lon="0.08779">
        <ele>572.2</ele>
        <time>2017-07-02T12:19:19Z</time>
      </trkpt>
      <trkpt lat="42.4312" lon="0.08784">
        <ele>572</ele>
        <time>2017-07-02T12:19:20Z</time>
      </trkpt>
      <trkpt lat="42.43117" lon="0.0879">
        <ele>571.6</ele>
        <time>2017-07-02T12:19:21Z</time>
      </trkpt>
      <trkpt lat="42.43114" lon="0.08795">
        <ele>571.3</ele>
        <time>2017-07-02T12:19:22Z</time>
      </trkpt>
      <trkpt lat="42.43111" lon="0.08801">
        <ele>571</ele>
        <time>2017-07-02T12:19:23Z</time>
      </trkpt>
      <trkpt lat="42.43108" lon="0.08807">
        <ele>571</ele>
        <time>2017-07-02T12:19:24Z</time>
      </trkpt>
      <trkpt lat="42.43105" lon="0.08813">
        <ele>571</ele>
        <time>2017-07-02T12:19:25Z</time>
      </trkpt>
      <trkpt lat="42.43102" lon="0.08817">
        <ele>571</ele>
        <time>2017-07-02T12:19:26Z</time>
      </trkpt>
      <trkpt lat="42.43099" lon="0.08822">
        <ele>571</ele>
        <time>2017-07-02T12:19:27Z</time>
      </trkpt>
      <trkpt lat="42.43095" lon="0.08827">
        <ele>571</ele>
        <time>2017-07-02T12:19:28Z</time>
      </trkpt>
      <trkpt lat="42.4309" lon="0.08832">
        <ele>571</ele>
        <time>2017-07-02T12:19:29Z</time>
      </trkpt>
      <trkpt lat="42.43083" lon="0.08836">
        <ele>571</ele>
        <time>2017-07-02T12:19:30Z</time>
      </trkpt>
      <trkpt lat="42.43077" lon="0.08841">
        <ele>571</ele>
        <time>2017-07-02T12:19:31Z</time>
      </trkpt>
      <trkpt lat="42.43072" lon="0.08847">
        <ele>571</ele>
        <time>2017-07-02T12:19:32Z</time>
      </trkpt>
      <trkpt lat="42.43068" lon="0.08853">
        <ele>571</ele>
        <time>2017-07-02T12:19:33Z</time>
      </trkpt>
      <trkpt lat="42.43065" lon="0.08858">
        <ele>571</ele>
        <time>2017-07-02T12:19:34Z</time>
      </trkpt>
      <trkpt lat="42.43061" lon="0.08864">
        <ele>571</ele>
        <time>2017-07-02T12:19:35Z</time>
      </trkpt>
      <trkpt lat="42.43059" lon="0.08871">
        <ele>571</ele>
        <time>2017-07-02T12:19:36Z</time>
      </trkpt>
      <trkpt lat="42.43056" lon="0.08878">
        <ele>571</ele>
        <time>2017-07-02T12:19:37Z</time>
      </trkpt>
      <trkpt lat="42.43053" lon="0.08886">
        <ele>571</ele>
        <time>2017-07-02T12:19:38Z</time>
      </trkpt>
      <trkpt lat="42.43049" lon="0.08893">
        <ele>571.1</ele>
        <time>2017-07-02T12:19:39Z</time>
      </trkpt>
      <trkpt lat="42.43046" lon="0.08901">
        <ele>571.1</ele>
        <time>2017-07-02T12:19:40Z</time>
      </trkpt>
      <trkpt lat="42.43042" lon="0.08908">
        <ele>571.1</ele>
        <time>2017-07-02T12:19:41Z</time>
      </trkpt>
      <trkpt lat="42.43039" lon="0.08916">
        <ele>571.1</ele>
        <time>2017-07-02T12:19:42Z</time>
      </trkpt>
      <trkpt lat="42.43035" lon="0.08923">
        <ele>571.1</ele>
        <time>2017-07-02T12:19:43Z</time>
      </trkpt>
      <trkpt lat="42.43032" lon="0.08931">
        <ele>571.1</ele>
        <time>2017-07-02T12:19:44Z</time>
      </trkpt>
      <trkpt lat="42.43028" lon="0.08938">
        <ele>571.1</ele>
        <time>2017-07-02T12:19:45Z</time>
      </trkpt>
      <trkpt lat="42.43026" lon="0.08945">
        <ele>571.1</ele>
        <time>2017-07-02T12:19:46Z</time>
      </trkpt>
      <trkpt lat="42.43022" lon="0.08953">
        <ele>571.1</ele>
        <time>2017-07-02T12:19:47Z</time>
      </trkpt>
      <trkpt lat="42.43019" lon="0.0896">
        <ele>571.1</ele>
        <time>2017-07-02T12:19:48Z</time>
      </trkpt>
      <trkpt lat="42.43016" lon="0.08968">
        <ele>571.1</ele>
        <time>2017-07-02T12:19:49Z</time>
      </trkpt>
      <trkpt lat="42.43013" lon="0.08975">
        <ele>571.2</ele>
        <time>2017-07-02T12:19:50Z</time>
      </trkpt>
      <trkpt lat="42.4301" lon="0.08982">
        <ele>571.2</ele>
        <time>2017-07-02T12:19:51Z</time>
      </trkpt>
      <trkpt lat="42.43006" lon="0.08989">
        <ele>571.2</ele>
        <time>2017-07-02T12:19:52Z</time>
      </trkpt>
      <trkpt lat="42.43002" lon="0.08995">
        <ele>571.2</ele>
        <time>2017-07-02T12:19:53Z</time>
      </trkpt>
      <trkpt lat="42.42999" lon="0.09002">
        <ele>571.2</ele>
        <time>2017-07-02T12:19:54Z</time>
      </trkpt>
      <trkpt lat="42.42996" lon="0.09009">
        <ele>571.3</ele>
        <time>2017-07-02T12:19:55Z</time>
      </trkpt>
      <trkpt lat="42.42992" lon="0.09015">
        <ele>571.3</ele>
        <time>2017-07-02T12:19:56Z</time>
      </trkpt>
      <trkpt lat="42.42987" lon="0.09021">
        <ele>571.4</ele>
        <time>2017-07-02T12:19:57Z</time>
      </trkpt>
      <trkpt lat="42.42983" lon="0.09026">
        <ele>571.4</ele>
        <time>2017-07-02T12:19:58Z</time>
      </trkpt>
      <trkpt lat="42.42978" lon="0.0903">
        <ele>571.5</ele>
        <time>2017-07-02T12:19:59Z</time>
      </trkpt>
      <trkpt lat="42.42974" lon="0.09034">
        <ele>571.5</ele>
        <time>2017-07-02T12:20:00Z</time>
      </trkpt>
      <trkpt lat="42.42969" lon="0.0904">
        <ele>571.6</ele>
        <time>2017-07-02T12:20:01Z</time>
      </trkpt>
      <trkpt lat="42.42965" lon="0.09045">
        <ele>571.7</ele>
        <time>2017-07-02T12:20:02Z</time>
      </trkpt>
      <trkpt lat="42.42961" lon="0.0905">
        <ele>571.9</ele>
        <time>2017-07-02T12:20:03Z</time>
      </trkpt>
      <trkpt lat="42.42957" lon="0.09054">
        <ele>572.1</ele>
        <time>2017-07-02T12:20:04Z</time>
      </trkpt>
      <trkpt lat="42.42953" lon="0.09059">
        <ele>572.4</ele>
        <time>2017-07-02T12:20:05Z</time>
      </trkpt>
      <trkpt lat="42.42949" lon="0.09065">
        <ele>572.7</ele>
        <time>2017-07-02T12:20:06Z</time>
      </trkpt>
      <trkpt lat="42.42945" lon="0.09071">
        <ele>572.9</ele>
        <time>2017-07-02T12:20:07Z</time>
      </trkpt>
      <trkpt lat="42.42941" lon="0.09077">
        <ele>573.1</ele>
        <time>2017-07-02T12:20:08Z</time>
      </trkpt>
      <trkpt lat="42.42937" lon="0.09082">
        <ele>573.3</ele>
        <time>2017-07-02T12:20:09Z</time>
      </trkpt>
      <trkpt lat="42.42933" lon="0.09086">
        <ele>573.3</ele>
        <time>2017-07-02T12:20:10Z</time>
      </trkpt>
      <trkpt lat="42.42929" lon="0.0909">
        <ele>573.3</ele>
        <time>2017-07-02T12:20:11Z</time>
      </trkpt>
      <trkpt lat="42.42925" lon="0.09094">
        <ele>573.4</ele>
        <time>2017-07-02T12:20:12Z</time>
      </trkpt>
      <trkpt lat="42.4292" lon="0.09098">
        <ele>573.4</ele>
        <time>2017-07-02T12:20:13Z</time>
      </trkpt>
      <trkpt lat="42.42916" lon="0.09102">
        <ele>573.4</ele>
        <time>2017-07-02T12:20:14Z</time>
      </trkpt>
      <trkpt lat="42.42912" lon="0.09106">
        <ele>573.5</ele>
        <time>2017-07-02T12:20:15Z</time>
      </trkpt>
      <trkpt lat="42.42908" lon="0.09111">
        <ele>573.5</ele>
        <time>2017-07-02T12:20:16Z</time>
      </trkpt>
      <trkpt lat="42.42904" lon="0.09115">
        <ele>573.5</ele>
        <time>2017-07-02T12:20:17Z</time>
      </trkpt>
      <trkpt lat="42.429" lon="0.09119">
        <ele>573.5</ele>
        <time>2017-07-02T12:20:18Z</time>
      </trkpt>
      <trkpt lat="42.42897" lon="0.09123">
        <ele>573.5</ele>
        <time>2017-07-02T12:20:19Z</time>
      </trkpt>
      <trkpt lat="42.42893" lon="0.09128">
        <ele>573.5</ele>
        <time>2017-07-02T12:20:20Z</time>
      </trkpt>
      <trkpt lat="42.42889" lon="0.09132">
        <ele>573.5</ele>
        <time>2017-07-02T12:20:21Z</time>
      </trkpt>
      <trkpt lat="42.42885" lon="0.09137">
        <ele>573.6</ele>
        <time>2017-07-02T12:20:22Z</time>
      </trkpt>
      <trkpt lat="42.42881" lon="0.09143">
        <ele>573.6</ele>
        <time>2017-07-02T12:20:23Z</time>
      </trkpt>
      <trkpt lat="42.42877" lon="0.09148">
        <ele>573.6</ele>
        <time>2017-07-02T12:20:24Z</time>
      </trkpt>
      <trkpt lat="42.42873" lon="0.09153">
        <ele>573.6</ele>
        <time>2017-07-02T12:20:25Z</time>
      </trkpt>
      <trkpt lat="42.42869" lon="0.09159">
        <ele>573.6</ele>
        <time>2017-07-02T12:20:26Z</time>
      </trkpt>
      <trkpt lat="42.42865" lon="0.09165">
        <ele>573.6</ele>
        <time>2017-07-02T12:20:27Z</time>
      </trkpt>
      <trkpt lat="42.42862" lon="0.0917">
        <ele>573.6</ele>
        <time>2017-07-02T12:20:28Z</time>
      </trkpt>
      <trkpt lat="42.42858" lon="0.09176">
        <ele>573.6</ele>
        <time>2017-07-02T12:20:29Z</time>
      </trkpt>
      <trkpt lat="42.42854" lon="0.09182">
        <ele>573.6</ele>
        <time>2017-07-02T12:20:30Z</time>
      </trkpt>
      <trkpt lat="42.4285" lon="0.09187">
        <ele>573.6</ele>
        <time>2017-07-02T12:20:31Z</time>
      </trkpt>
      <trkpt lat="42.42845" lon="0.09193">
        <ele>573.6</ele>
        <time>2017-07-02T12:20:32Z</time>
      </trkpt>
      <trkpt lat="42.42842" lon="0.09199">
        <ele>573.6</ele>
        <time>2017-07-02T12:20:33Z</time>
      </trkpt>
      <trkpt lat="42.42838" lon="0.09204">
        <ele>573.6</ele>
        <time>2017-07-02T12:20:34Z</time>
      </trkpt>
      <trkpt lat="42.42834" lon="0.0921">
        <ele>573.6</ele>
        <time>2017-07-02T12:20:35Z</time>
      </trkpt>
      <trkpt lat="42.42831" lon="0.09215">
        <ele>573.6</ele>
        <time>2017-07-02T12:20:36Z</time>
      </trkpt>
      <trkpt lat="42.42827" lon="0.09219">
        <ele>573.6</ele>
        <time>2017-07-02T12:20:37Z</time>
      </trkpt>
      <trkpt lat="42.42824" lon="0.09225">
        <ele>573.6</ele>
        <time>2017-07-02T12:20:38Z</time>
      </trkpt>
      <trkpt lat="42.4282" lon="0.0923">
        <ele>573.7</ele>
        <time>2017-07-02T12:20:39Z</time>
      </trkpt>
      <trkpt lat="42.42816" lon="0.09234">
        <ele>573.7</ele>
        <time>2017-07-02T12:20:40Z</time>
      </trkpt>
      <trkpt lat="42.42813" lon="0.0924">
        <ele>573.7</ele>
        <time>2017-07-02T12:20:41Z</time>
      </trkpt>
      <trkpt lat="42.4281" lon="0.09245">
        <ele>573.7</ele>
        <time>2017-07-02T12:20:42Z</time>
      </trkpt>
      <trkpt lat="42.42807" lon="0.0925">
        <ele>573.7</ele>
        <time>2017-07-02T12:20:43Z</time>
      </trkpt>
      <trkpt lat="42.42804" lon="0.09255">
        <ele>573.7</ele>
        <time>2017-07-02T12:20:44Z</time>
      </trkpt>
      <trkpt lat="42.428" lon="0.09262">
        <ele>573.7</ele>
        <time>2017-07-02T12:20:45Z</time>
      </trkpt>
      <trkpt lat="42.42797" lon="0.09268">
        <ele>573.7</ele>
        <time>2017-07-02T12:20:46Z</time>
      </trkpt>
      <trkpt lat="42.42794" lon="0.09273">
        <ele>573.7</ele>
        <time>2017-07-02T12:20:47Z</time>
      </trkpt>
      <trkpt lat="42.42791" lon="0.09277">
        <ele>573.7</ele>
        <time>2017-07-02T12:20:48Z</time>
      </trkpt>
      <trkpt lat="42.42788" lon="0.09281">
        <ele>573.7</ele>
        <time>2017-07-02T12:20:49Z</time>
      </trkpt>
      <trkpt lat="42.42785" lon="0.09287">
        <ele>573.7</ele>
        <time>2017-07-02T12:20:50Z</time>
      </trkpt>
      <trkpt lat="42.42783" lon="0.09292">
        <ele>573.7</ele>
        <time>2017-07-02T12:20:51Z</time>
      </trkpt>
      <trkpt lat="42.42781" lon="0.09297">
        <ele>573.7</ele>
        <time>2017-07-02T12:20:52Z</time>
      </trkpt>
      <trkpt lat="42.42778" lon="0.09303">
        <ele>573.7</ele>
        <time>2017-07-02T12:20:53Z</time>
      </trkpt>
      <trkpt lat="42.42777" lon="0.09308">
        <ele>573.7</ele>
        <time>2017-07-02T12:20:54Z</time>
      </trkpt>
      <trkpt lat="42.42775" lon="0.09314">
        <ele>573.7</ele>
        <time>2017-07-02T12:20:55Z</time>
      </trkpt>
      <trkpt lat="42.42773" lon="0.09319">
        <ele>573.7</ele>
        <time>2017-07-02T12:20:56Z</time>
      </trkpt>
      <trkpt lat="42.42771" lon="0.09325">
        <ele>573.6</ele>
        <time>2017-07-02T12:20:57Z</time>
      </trkpt>
      <trkpt lat="42.4277" lon="0.09331">
        <ele>573.6</ele>
        <time>2017-07-02T12:20:58Z</time>
      </trkpt>
      <trkpt lat="42.42769" lon="0.09337">
        <ele>573.6</ele>
        <time>2017-07-02T12:20:59Z</time>
      </trkpt>
      <trkpt lat="42.42768" lon="0.09343">
        <ele>573.5</ele>
        <time>2017-07-02T12:21:00Z</time>
      </trkpt>
      <trkpt lat="42.42768" lon="0.09349">
        <ele>573.5</ele>
        <time>2017-07-02T12:21:01Z</time>
      </trkpt>
      <trkpt lat="42.42767" lon="0.09354">
        <ele>573.3</ele>
        <time>2017-07-02T12:21:02Z</time>
      </trkpt>
      <trkpt lat="42.42766" lon="0.0936">
        <ele>573</ele>
        <time>2017-07-02T12:21:03Z</time>
      </trkpt>
      <trkpt lat="42.42766" lon="0.09367">
        <ele>572.6</ele>
        <time>2017-07-02T12:21:04Z</time>
      </trkpt>
      <trkpt lat="42.42766" lon="0.09373">
        <ele>572.3</ele>
        <time>2017-07-02T12:21:05Z</time>
      </trkpt>
      <trkpt lat="42.42767" lon="0.09381">
        <ele>572.1</ele>
        <time>2017-07-02T12:21:06Z</time>
      </trkpt>
      <trkpt lat="42.42766" lon="0.09389">
        <ele>571.9</ele>
        <time>2017-07-02T12:21:07Z</time>
      </trkpt>
      <trkpt lat="42.42766" lon="0.09397">
        <ele>571.7</ele>
        <time>2017-07-02T12:21:08Z</time>
      </trkpt>
      <trkpt lat="42.42765" lon="0.09406">
        <ele>571.3</ele>
        <time>2017-07-02T12:21:09Z</time>
      </trkpt>
      <trkpt lat="42.42764" lon="0.09414">
        <ele>570.9</ele>
        <time>2017-07-02T12:21:10Z</time>
      </trkpt>
      <trkpt lat="42.42764" lon="0.09424">
        <ele>570.6</ele>
        <time>2017-07-02T12:21:11Z</time>
      </trkpt>
      <trkpt lat="42.42764" lon="0.09434">
        <ele>570.5</ele>
        <time>2017-07-02T12:21:12Z</time>
      </trkpt>
      <trkpt lat="42.42764" lon="0.09444">
        <ele>570.3</ele>
        <time>2017-07-02T12:21:13Z</time>
      </trkpt>
      <trkpt lat="42.42764" lon="0.09454">
        <ele>570.2</ele>
        <time>2017-07-02T12:21:14Z</time>
      </trkpt>
      <trkpt lat="42.42764" lon="0.09463">
        <ele>570.2</ele>
        <time>2017-07-02T12:21:15Z</time>
      </trkpt>
      <trkpt lat="42.42765" lon="0.09473">
        <ele>570.2</ele>
        <time>2017-07-02T12:21:16Z</time>
      </trkpt>
      <trkpt lat="42.42766" lon="0.09482">
        <ele>570.2</ele>
        <time>2017-07-02T12:21:17Z</time>
      </trkpt>
      <trkpt lat="42.42767" lon="0.09491">
        <ele>570.2</ele>
        <time>2017-07-02T12:21:18Z</time>
      </trkpt>
      <trkpt lat="42.42769" lon="0.09501">
        <ele>570.2</ele>
        <time>2017-07-02T12:21:19Z</time>
      </trkpt>
      <trkpt lat="42.4277" lon="0.0951">
        <ele>570.2</ele>
        <time>2017-07-02T12:21:20Z</time>
      </trkpt>
      <trkpt lat="42.42771" lon="0.0952">
        <ele>570.2</ele>
        <time>2017-07-02T12:21:21Z</time>
      </trkpt>
      <trkpt lat="42.42773" lon="0.0953">
        <ele>570.2</ele>
        <time>2017-07-02T12:21:22Z</time>
      </trkpt>
      <trkpt lat="42.42776" lon="0.09539">
        <ele>570.2</ele>
        <time>2017-07-02T12:21:23Z</time>
      </trkpt>
      <trkpt lat="42.42778" lon="0.09549">
        <ele>570.2</ele>
        <time>2017-07-02T12:21:24Z</time>
      </trkpt>
      <trkpt lat="42.4278" lon="0.09559">
        <ele>570.2</ele>
        <time>2017-07-02T12:21:25Z</time>
      </trkpt>
      <trkpt lat="42.42782" lon="0.09567">
        <ele>570.2</ele>
        <time>2017-07-02T12:21:26Z</time>
      </trkpt>
      <trkpt lat="42.42784" lon="0.09576">
        <ele>570.2</ele>
        <time>2017-07-02T12:21:27Z</time>
      </trkpt>
      <trkpt lat="42.42785" lon="0.09585">
        <ele>570.2</ele>
        <time>2017-07-02T12:21:28Z</time>
      </trkpt>
      <trkpt lat="42.42785" lon="0.09594">
        <ele>570.2</ele>
        <time>2017-07-02T12:21:29Z</time>
      </trkpt>
      <trkpt lat="42.42785" lon="0.09603">
        <ele>570.2</ele>
        <time>2017-07-02T12:21:30Z</time>
      </trkpt>
      <trkpt lat="42.42788" lon="0.09612">
        <ele>570.1</ele>
        <time>2017-07-02T12:21:31Z</time>
      </trkpt>
      <trkpt lat="42.42791" lon="0.09619">
        <ele>570</ele>
        <time>2017-07-02T12:21:32Z</time>
      </trkpt>
      <trkpt lat="42.42793" lon="0.09628">
        <ele>569.7</ele>
        <time>2017-07-02T12:21:33Z</time>
      </trkpt>
      <trkpt lat="42.42796" lon="0.09636">
        <ele>569.3</ele>
        <time>2017-07-02T12:21:34Z</time>
      </trkpt>
      <trkpt lat="42.42799" lon="0.09646">
        <ele>569.1</ele>
        <time>2017-07-02T12:21:35Z</time>
      </trkpt>
      <trkpt lat="42.42801" lon="0.09656">
        <ele>569</ele>
        <time>2017-07-02T12:21:36Z</time>
      </trkpt>
      <trkpt lat="42.42804" lon="0.09666">
        <ele>568.9</ele>
        <time>2017-07-02T12:21:37Z</time>
      </trkpt>
      <trkpt lat="42.42806" lon="0.09674">
        <ele>568.7</ele>
        <time>2017-07-02T12:21:38Z</time>
      </trkpt>
      <trkpt lat="42.4281" lon="0.09682">
        <ele>568.7</ele>
        <time>2017-07-02T12:21:39Z</time>
      </trkpt>
      <trkpt lat="42.42813" lon="0.09692">
        <ele>568.6</ele>
        <time>2017-07-02T12:21:40Z</time>
      </trkpt>
      <trkpt lat="42.42816" lon="0.09699">
        <ele>568.6</ele>
        <time>2017-07-02T12:21:41Z</time>
      </trkpt>
      <trkpt lat="42.4282" lon="0.09708">
        <ele>568.5</ele>
        <time>2017-07-02T12:21:42Z</time>
      </trkpt>
      <trkpt lat="42.42821" lon="0.09718">
        <ele>568.4</ele>
        <time>2017-07-02T12:21:43Z</time>
      </trkpt>
      <trkpt lat="42.4282" lon="0.09726">
        <ele>568.3</ele>
        <time>2017-07-02T12:21:44Z</time>
      </trkpt>
      <trkpt lat="42.42818" lon="0.09733">
        <ele>568.1</ele>
        <time>2017-07-02T12:21:45Z</time>
      </trkpt>
      <trkpt lat="42.42816" lon="0.0974">
        <ele>567.8</ele>
        <time>2017-07-02T12:21:46Z</time>
      </trkpt>
      <trkpt lat="42.42814" lon="0.09746">
        <ele>567.4</ele>
        <time>2017-07-02T12:21:47Z</time>
      </trkpt>
      <trkpt lat="42.42813" lon="0.09751">
        <ele>567.2</ele>
        <time>2017-07-02T12:21:48Z</time>
      </trkpt>
      <trkpt lat="42.42813" lon="0.09756">
        <ele>567.1</ele>
        <time>2017-07-02T12:21:49Z</time>
      </trkpt>
      <trkpt lat="42.42811" lon="0.09763">
        <ele>566.9</ele>
        <time>2017-07-02T12:21:50Z</time>
      </trkpt>
      <trkpt lat="42.4281" lon="0.09772">
        <ele>566.8</ele>
        <time>2017-07-02T12:21:51Z</time>
      </trkpt>
      <trkpt lat="42.4281" lon="0.0978">
        <ele>566.7</ele>
        <time>2017-07-02T12:21:52Z</time>
      </trkpt>
      <trkpt lat="42.4281" lon="0.09789">
        <ele>566.6</ele>
        <time>2017-07-02T12:21:53Z</time>
      </trkpt>
      <trkpt lat="42.42813" lon="0.09794">
        <ele>566.6</ele>
        <time>2017-07-02T12:21:54Z</time>
      </trkpt>
      <trkpt lat="42.42814" lon="0.09803">
        <ele>566.5</ele>
        <time>2017-07-02T12:21:55Z</time>
      </trkpt>
      <trkpt lat="42.42814" lon="0.09813">
        <ele>566.4</ele>
        <time>2017-07-02T12:21:56Z</time>
      </trkpt>
      <trkpt lat="42.42816" lon="0.09819">
        <ele>566.3</ele>
        <time>2017-07-02T12:21:57Z</time>
      </trkpt>
      <trkpt lat="42.42818" lon="0.09827">
        <ele>566</ele>
        <time>2017-07-02T12:21:58Z</time>
      </trkpt>
      <trkpt lat="42.42819" lon="0.09835">
        <ele>565.7</ele>
        <time>2017-07-02T12:21:59Z</time>
      </trkpt>
      <trkpt lat="42.42819" lon="0.09842">
        <ele>565.4</ele>
        <time>2017-07-02T12:22:00Z</time>
      </trkpt>
      <trkpt lat="42.42817" lon="0.09851">
        <ele>565.3</ele>
        <time>2017-07-02T12:22:01Z</time>
      </trkpt>
      <trkpt lat="42.42818" lon="0.0986">
        <ele>565.1</ele>
        <time>2017-07-02T12:22:02Z</time>
      </trkpt>
      <trkpt lat="42.42818" lon="0.09869">
        <ele>565</ele>
        <time>2017-07-02T12:22:03Z</time>
      </trkpt>
      <trkpt lat="42.42818" lon="0.09878">
        <ele>564.9</ele>
        <time>2017-07-02T12:22:04Z</time>
      </trkpt>
      <trkpt lat="42.42818" lon="0.09886">
        <ele>564.9</ele>
        <time>2017-07-02T12:22:05Z</time>
      </trkpt>
      <trkpt lat="42.42817" lon="0.09895">
        <ele>564.8</ele>
        <time>2017-07-02T12:22:06Z</time>
      </trkpt>
      <trkpt lat="42.42816" lon="0.09904">
        <ele>564.8</ele>
        <time>2017-07-02T12:22:07Z</time>
      </trkpt>
      <trkpt lat="42.42816" lon="0.09912">
        <ele>564.8</ele>
        <time>2017-07-02T12:22:08Z</time>
      </trkpt>
      <trkpt lat="42.42816" lon="0.09921">
        <ele>564.8</ele>
        <time>2017-07-02T12:22:09Z</time>
      </trkpt>
      <trkpt lat="42.42818" lon="0.0993">
        <ele>564.8</ele>
        <time>2017-07-02T12:22:10Z</time>
      </trkpt>
      <trkpt lat="42.4282" lon="0.09938">
        <ele>564.8</ele>
        <time>2017-07-02T12:22:11Z</time>
      </trkpt>
      <trkpt lat="42.42822" lon="0.09948">
        <ele>564.9</ele>
        <time>2017-07-02T12:22:12Z</time>
      </trkpt>
      <trkpt lat="42.42824" lon="0.09956">
        <ele>564.9</ele>
        <time>2017-07-02T12:22:13Z</time>
      </trkpt>
      <trkpt lat="42.42821" lon="0.09964">
        <ele>564.9</ele>
        <time>2017-07-02T12:22:14Z</time>
      </trkpt>
      <trkpt lat="42.42822" lon="0.09971">
        <ele>564.9</ele>
        <time>2017-07-02T12:22:15Z</time>
      </trkpt>
      <trkpt lat="42.42821" lon="0.0998">
        <ele>564.9</ele>
        <time>2017-07-02T12:22:16Z</time>
      </trkpt>
      <trkpt lat="42.42823" lon="0.09988">
        <ele>564.9</ele>
        <time>2017-07-02T12:22:17Z</time>
      </trkpt>
      <trkpt lat="42.42823" lon="0.09997">
        <ele>564.9</ele>
        <time>2017-07-02T12:22:18Z</time>
      </trkpt>
      <trkpt lat="42.42823" lon="0.10005">
        <ele>565</ele>
        <time>2017-07-02T12:22:19Z</time>
      </trkpt>
      <trkpt lat="42.42822" lon="0.10013">
        <ele>565</ele>
        <time>2017-07-02T12:22:20Z</time>
      </trkpt>
      <trkpt lat="42.42821" lon="0.10021">
        <ele>565</ele>
        <time>2017-07-02T12:22:21Z</time>
      </trkpt>
      <trkpt lat="42.4282" lon="0.10029">
        <ele>565</ele>
        <time>2017-07-02T12:22:22Z</time>
      </trkpt>
      <trkpt lat="42.4282" lon="0.10037">
        <ele>565</ele>
        <time>2017-07-02T12:22:23Z</time>
      </trkpt>
      <trkpt lat="42.4282" lon="0.10045">
        <ele>565</ele>
        <time>2017-07-02T12:22:24Z</time>
      </trkpt>
      <trkpt lat="42.42822" lon="0.10053">
        <ele>565</ele>
        <time>2017-07-02T12:22:25Z</time>
      </trkpt>
      <trkpt lat="42.42823" lon="0.1006">
        <ele>565</ele>
        <time>2017-07-02T12:22:26Z</time>
      </trkpt>
      <trkpt lat="42.42825" lon="0.10068">
        <ele>564.9</ele>
        <time>2017-07-02T12:22:27Z</time>
      </trkpt>
      <trkpt lat="42.42826" lon="0.10077">
        <ele>564.9</ele>
        <time>2017-07-02T12:22:28Z</time>
      </trkpt>
      <trkpt lat="42.42829" lon="0.10084">
        <ele>564.9</ele>
        <time>2017-07-02T12:22:29Z</time>
      </trkpt>
      <trkpt lat="42.4283" lon="0.10091">
        <ele>564.8</ele>
        <time>2017-07-02T12:22:30Z</time>
      </trkpt>
      <trkpt lat="42.42832" lon="0.10099">
        <ele>564.8</ele>
        <time>2017-07-02T12:22:31Z</time>
      </trkpt>
      <trkpt lat="42.42832" lon="0.10104">
        <ele>564.8</ele>
        <time>2017-07-02T12:22:32Z</time>
      </trkpt>
      <trkpt lat="42.42834" lon="0.10111">
        <ele>564.7</ele>
        <time>2017-07-02T12:22:33Z</time>
      </trkpt>
      <trkpt lat="42.42837" lon="0.10118">
        <ele>564.7</ele>
        <time>2017-07-02T12:22:34Z</time>
      </trkpt>
      <trkpt lat="42.42841" lon="0.10124">
        <ele>564.7</ele>
        <time>2017-07-02T12:22:35Z</time>
      </trkpt>
      <trkpt lat="42.42845" lon="0.10127">
        <ele>564.6</ele>
        <time>2017-07-02T12:22:36Z</time>
      </trkpt>
      <trkpt lat="42.42848" lon="0.10131">
        <ele>564.6</ele>
        <time>2017-07-02T12:22:37Z</time>
      </trkpt>
      <trkpt lat="42.42853" lon="0.10135">
        <ele>564.5</ele>
        <time>2017-07-02T12:22:38Z</time>
      </trkpt>
      <trkpt lat="42.42856" lon="0.1014">
        <ele>564.5</ele>
        <time>2017-07-02T12:22:39Z</time>
      </trkpt>
      <trkpt lat="42.42858" lon="0.10146">
        <ele>564.5</ele>
        <time>2017-07-02T12:22:40Z</time>
      </trkpt>
      <trkpt lat="42.4286" lon="0.10152">
        <ele>564.4</ele>
        <time>2017-07-02T12:22:41Z</time>
      </trkpt>
      <trkpt lat="42.42861" lon="0.10159">
        <ele>564.4</ele>
        <time>2017-07-02T12:22:42Z</time>
      </trkpt>
      <trkpt lat="42.42862" lon="0.10165">
        <ele>564.4</ele>
        <time>2017-07-02T12:22:43Z</time>
      </trkpt>
      <trkpt lat="42.42862" lon="0.10173">
        <ele>564.3</ele>
        <time>2017-07-02T12:22:44Z</time>
      </trkpt>
      <trkpt lat="42.42861" lon="0.10181">
        <ele>564.3</ele>
        <time>2017-07-02T12:22:45Z</time>
      </trkpt>
      <trkpt lat="42.42858" lon="0.10188">
        <ele>564.2</ele>
        <time>2017-07-02T12:22:46Z</time>
      </trkpt>
      <trkpt lat="42.42856" lon="0.10196">
        <ele>564.2</ele>
        <time>2017-07-02T12:22:47Z</time>
      </trkpt>
      <trkpt lat="42.42855" lon="0.10203">
        <ele>564.1</ele>
        <time>2017-07-02T12:22:48Z</time>
      </trkpt>
      <trkpt lat="42.42856" lon="0.1021">
        <ele>563.6</ele>
        <time>2017-07-02T12:22:49Z</time>
      </trkpt>
      <trkpt lat="42.42857" lon="0.10217">
        <ele>563.5</ele>
        <time>2017-07-02T12:22:50Z</time>
      </trkpt>
      <trkpt lat="42.4286" lon="0.10224">
        <ele>563.4</ele>
        <time>2017-07-02T12:22:51Z</time>
      </trkpt>
      <trkpt lat="42.42868" lon="0.10224">
        <ele>563.3</ele>
        <time>2017-07-02T12:22:52Z</time>
      </trkpt>
      <trkpt lat="42.4287" lon="0.10231">
        <ele>563.3</ele>
        <time>2017-07-02T12:22:53Z</time>
      </trkpt>
      <trkpt lat="42.42872" lon="0.10236">
        <ele>563.2</ele>
        <time>2017-07-02T12:22:54Z</time>
      </trkpt>
      <trkpt lat="42.42873" lon="0.10244">
        <ele>563.2</ele>
        <time>2017-07-02T12:22:55Z</time>
      </trkpt>
      <trkpt lat="42.42874" lon="0.10251">
        <ele>563.1</ele>
        <time>2017-07-02T12:22:56Z</time>
      </trkpt>
      <trkpt lat="42.42875" lon="0.10257">
        <ele>563.1</ele>
        <time>2017-07-02T12:22:57Z</time>
      </trkpt>
      <trkpt lat="42.42875" lon="0.10266">
        <ele>563</ele>
        <time>2017-07-02T12:22:58Z</time>
      </trkpt>
      <trkpt lat="42.42874" lon="0.10274">
        <ele>562.9</ele>
        <time>2017-07-02T12:22:59Z</time>
      </trkpt>
      <trkpt lat="42.42873" lon="0.10282">
        <ele>562.8</ele>
        <time>2017-07-02T12:23:00Z</time>
      </trkpt>
      <trkpt lat="42.42872" lon="0.1029">
        <ele>562.7</ele>
        <time>2017-07-02T12:23:01Z</time>
      </trkpt>
      <trkpt lat="42.42871" lon="0.10299">
        <ele>562.6</ele>
        <time>2017-07-02T12:23:02Z</time>
      </trkpt>
      <trkpt lat="42.4287" lon="0.10306">
        <ele>562.5</ele>
        <time>2017-07-02T12:23:03Z</time>
      </trkpt>
      <trkpt lat="42.42869" lon="0.10313">
        <ele>562.4</ele>
        <time>2017-07-02T12:23:04Z</time>
      </trkpt>
      <trkpt lat="42.42868" lon="0.10321">
        <ele>562.3</ele>
        <time>2017-07-02T12:23:05Z</time>
      </trkpt>
      <trkpt lat="42.42867" lon="0.10328">
        <ele>562.2</ele>
        <time>2017-07-02T12:23:06Z</time>
      </trkpt>
      <trkpt lat="42.42866" lon="0.10335">
        <ele>562.1</ele>
        <time>2017-07-02T12:23:07Z</time>
      </trkpt>
      <trkpt lat="42.42866" lon="0.10341">
        <ele>561.9</ele>
        <time>2017-07-02T12:23:08Z</time>
      </trkpt>
      <trkpt lat="42.42865" lon="0.10348">
        <ele>561.8</ele>
        <time>2017-07-02T12:23:09Z</time>
      </trkpt>
      <trkpt lat="42.42864" lon="0.10355">
        <ele>561.7</ele>
        <time>2017-07-02T12:23:10Z</time>
      </trkpt>
      <trkpt lat="42.42863" lon="0.10363">
        <ele>561.7</ele>
        <time>2017-07-02T12:23:11Z</time>
      </trkpt>
      <trkpt lat="42.42862" lon="0.1037">
        <ele>561.6</ele>
        <time>2017-07-02T12:23:12Z</time>
      </trkpt>
      <trkpt lat="42.42861" lon="0.10377">
        <ele>561.5</ele>
        <time>2017-07-02T12:23:13Z</time>
      </trkpt>
      <trkpt lat="42.42861" lon="0.10385">
        <ele>561.5</ele>
        <time>2017-07-02T12:23:14Z</time>
      </trkpt>
      <trkpt lat="42.42859" lon="0.10392">
        <ele>561.4</ele>
        <time>2017-07-02T12:23:15Z</time>
      </trkpt>
      <trkpt lat="42.42858" lon="0.10399">
        <ele>561.4</ele>
        <time>2017-07-02T12:23:16Z</time>
      </trkpt>
      <trkpt lat="42.42857" lon="0.10406">
        <ele>561.2</ele>
        <time>2017-07-02T12:23:17Z</time>
      </trkpt>
      <trkpt lat="42.42856" lon="0.10414">
        <ele>561.1</ele>
        <time>2017-07-02T12:23:18Z</time>
      </trkpt>
      <trkpt lat="42.42855" lon="0.10421">
        <ele>561</ele>
        <time>2017-07-02T12:23:19Z</time>
      </trkpt>
      <trkpt lat="42.42855" lon="0.10428">
        <ele>560.9</ele>
        <time>2017-07-02T12:23:20Z</time>
      </trkpt>
      <trkpt lat="42.42855" lon="0.10436">
        <ele>560.8</ele>
        <time>2017-07-02T12:23:21Z</time>
      </trkpt>
      <trkpt lat="42.42853" lon="0.10443">
        <ele>560.6</ele>
        <time>2017-07-02T12:23:22Z</time>
      </trkpt>
      <trkpt lat="42.42852" lon="0.1045">
        <ele>560.5</ele>
        <time>2017-07-02T12:23:23Z</time>
      </trkpt>
      <trkpt lat="42.4285" lon="0.10458">
        <ele>560.4</ele>
        <time>2017-07-02T12:23:24Z</time>
      </trkpt>
      <trkpt lat="42.4285" lon="0.10466">
        <ele>560.3</ele>
        <time>2017-07-02T12:23:25Z</time>
      </trkpt>
      <trkpt lat="42.4285" lon="0.10473">
        <ele>560.2</ele>
        <time>2017-07-02T12:23:26Z</time>
      </trkpt>
      <trkpt lat="42.42849" lon="0.1048">
        <ele>560.1</ele>
        <time>2017-07-02T12:23:27Z</time>
      </trkpt>
      <trkpt lat="42.42847" lon="0.10487">
        <ele>559.8</ele>
        <time>2017-07-02T12:23:28Z</time>
      </trkpt>
      <trkpt lat="42.42847" lon="0.10495">
        <ele>559.3</ele>
        <time>2017-07-02T12:23:29Z</time>
      </trkpt>
      <trkpt lat="42.42846" lon="0.10502">
        <ele>558.9</ele>
        <time>2017-07-02T12:23:30Z</time>
      </trkpt>
      <trkpt lat="42.42845" lon="0.10509">
        <ele>558.4</ele>
        <time>2017-07-02T12:23:31Z</time>
      </trkpt>
      <trkpt lat="42.42844" lon="0.10516">
        <ele>558.2</ele>
        <time>2017-07-02T12:23:32Z</time>
      </trkpt>
      <trkpt lat="42.42843" lon="0.10523">
        <ele>558</ele>
        <time>2017-07-02T12:23:33Z</time>
      </trkpt>
      <trkpt lat="42.42842" lon="0.1053">
        <ele>557.8</ele>
        <time>2017-07-02T12:23:34Z</time>
      </trkpt>
      <trkpt lat="42.42842" lon="0.10537">
        <ele>557.6</ele>
        <time>2017-07-02T12:23:35Z</time>
      </trkpt>
      <trkpt lat="42.42841" lon="0.10544">
        <ele>557.3</ele>
        <time>2017-07-02T12:23:36Z</time>
      </trkpt>
      <trkpt lat="42.42839" lon="0.10552">
        <ele>557.1</ele>
        <time>2017-07-02T12:23:37Z</time>
      </trkpt>
      <trkpt lat="42.42839" lon="0.10559">
        <ele>557</ele>
        <time>2017-07-02T12:23:38Z</time>
      </trkpt>
      <trkpt lat="42.42837" lon="0.10566">
        <ele>556.8</ele>
        <time>2017-07-02T12:23:39Z</time>
      </trkpt>
      <trkpt lat="42.42836" lon="0.10573">
        <ele>556.7</ele>
        <time>2017-07-02T12:23:40Z</time>
      </trkpt>
      <trkpt lat="42.42835" lon="0.1058">
        <ele>556.4</ele>
        <time>2017-07-02T12:23:41Z</time>
      </trkpt>
      <trkpt lat="42.42834" lon="0.10587">
        <ele>556.2</ele>
        <time>2017-07-02T12:23:42Z</time>
      </trkpt>
      <trkpt lat="42.42833" lon="0.10594">
        <ele>556</ele>
        <time>2017-07-02T12:23:43Z</time>
      </trkpt>
      <trkpt lat="42.42833" lon="0.10602">
        <ele>556</ele>
        <time>2017-07-02T12:23:44Z</time>
      </trkpt>
      <trkpt lat="42.42832" lon="0.10608">
        <ele>556</ele>
        <time>2017-07-02T12:23:45Z</time>
      </trkpt>
      <trkpt lat="42.42831" lon="0.10616">
        <ele>556</ele>
        <time>2017-07-02T12:23:46Z</time>
      </trkpt>
      <trkpt lat="42.42831" lon="0.10623">
        <ele>556</ele>
        <time>2017-07-02T12:23:47Z</time>
      </trkpt>
      <trkpt lat="42.42831" lon="0.10631">
        <ele>556</ele>
        <time>2017-07-02T12:23:48Z</time>
      </trkpt>
      <trkpt lat="42.4283" lon="0.10639">
        <ele>556</ele>
        <time>2017-07-02T12:23:49Z</time>
      </trkpt>
      <trkpt lat="42.42831" lon="0.10648">
        <ele>556</ele>
        <time>2017-07-02T12:23:50Z</time>
      </trkpt>
      <trkpt lat="42.42832" lon="0.10656">
        <ele>556</ele>
        <time>2017-07-02T12:23:51Z</time>
      </trkpt>
      <trkpt lat="42.42832" lon="0.10663">
        <ele>556</ele>
        <time>2017-07-02T12:23:52Z</time>
      </trkpt>
      <trkpt lat="42.42832" lon="0.10672">
        <ele>556</ele>
        <time>2017-07-02T12:23:53Z</time>
      </trkpt>
      <trkpt lat="42.42833" lon="0.10679">
        <ele>556</ele>
        <time>2017-07-02T12:23:54Z</time>
      </trkpt>
      <trkpt lat="42.42833" lon="0.10687">
        <ele>556</ele>
        <time>2017-07-02T12:23:55Z</time>
      </trkpt>
      <trkpt lat="42.42833" lon="0.10695">
        <ele>556</ele>
        <time>2017-07-02T12:23:56Z</time>
      </trkpt>
      <trkpt lat="42.42833" lon="0.10703">
        <ele>555.9</ele>
        <time>2017-07-02T12:23:57Z</time>
      </trkpt>
      <trkpt lat="42.42834" lon="0.10711">
        <ele>555.8</ele>
        <time>2017-07-02T12:23:58Z</time>
      </trkpt>
      <trkpt lat="42.42833" lon="0.10718">
        <ele>555.7</ele>
        <time>2017-07-02T12:23:59Z</time>
      </trkpt>
      <trkpt lat="42.42833" lon="0.10725">
        <ele>555.5</ele>
        <time>2017-07-02T12:24:00Z</time>
      </trkpt>
      <trkpt lat="42.42833" lon="0.10733">
        <ele>555.3</ele>
        <time>2017-07-02T12:24:01Z</time>
      </trkpt>
      <trkpt lat="42.42832" lon="0.1074">
        <ele>555.3</ele>
        <time>2017-07-02T12:24:02Z</time>
      </trkpt>
      <trkpt lat="42.42832" lon="0.10747">
        <ele>555.2</ele>
        <time>2017-07-02T12:24:03Z</time>
      </trkpt>
      <trkpt lat="42.42832" lon="0.10754">
        <ele>555.2</ele>
        <time>2017-07-02T12:24:04Z</time>
      </trkpt>
      <trkpt lat="42.42831" lon="0.10761">
        <ele>555.1</ele>
        <time>2017-07-02T12:24:05Z</time>
      </trkpt>
      <trkpt lat="42.42831" lon="0.10768">
        <ele>555.1</ele>
        <time>2017-07-02T12:24:06Z</time>
      </trkpt>
      <trkpt lat="42.42831" lon="0.10775">
        <ele>555</ele>
        <time>2017-07-02T12:24:07Z</time>
      </trkpt>
      <trkpt lat="42.42832" lon="0.10783">
        <ele>554.9</ele>
        <time>2017-07-02T12:24:08Z</time>
      </trkpt>
      <trkpt lat="42.42832" lon="0.1079">
        <ele>554.9</ele>
        <time>2017-07-02T12:24:09Z</time>
      </trkpt>
      <trkpt lat="42.42832" lon="0.10797">
        <ele>554.9</ele>
        <time>2017-07-02T12:24:10Z</time>
      </trkpt>
      <trkpt lat="42.42832" lon="0.10805">
        <ele>554.8</ele>
        <time>2017-07-02T12:24:11Z</time>
      </trkpt>
      <trkpt lat="42.42831" lon="0.10812">
        <ele>554.8</ele>
        <time>2017-07-02T12:24:12Z</time>
      </trkpt>
      <trkpt lat="42.42832" lon="0.1082">
        <ele>554.8</ele>
        <time>2017-07-02T12:24:13Z</time>
      </trkpt>
      <trkpt lat="42.42832" lon="0.10827">
        <ele>554.7</ele>
        <time>2017-07-02T12:24:14Z</time>
      </trkpt>
      <trkpt lat="42.42833" lon="0.10834">
        <ele>554.7</ele>
        <time>2017-07-02T12:24:15Z</time>
      </trkpt>
      <trkpt lat="42.42834" lon="0.10842">
        <ele>554.7</ele>
        <time>2017-07-02T12:24:16Z</time>
      </trkpt>
      <trkpt lat="42.42834" lon="0.10849">
        <ele>554.7</ele>
        <time>2017-07-02T12:24:17Z</time>
      </trkpt>
      <trkpt lat="42.42835" lon="0.10857">
        <ele>554.7</ele>
        <time>2017-07-02T12:24:18Z</time>
      </trkpt>
      <trkpt lat="42.42834" lon="0.10865">
        <ele>554.7</ele>
        <time>2017-07-02T12:24:19Z</time>
      </trkpt>
      <trkpt lat="42.42835" lon="0.10873">
        <ele>554.7</ele>
        <time>2017-07-02T12:24:20Z</time>
      </trkpt>
      <trkpt lat="42.42835" lon="0.1088">
        <ele>554.7</ele>
        <time>2017-07-02T12:24:21Z</time>
      </trkpt>
      <trkpt lat="42.42834" lon="0.10888">
        <ele>554.8</ele>
        <time>2017-07-02T12:24:22Z</time>
      </trkpt>
      <trkpt lat="42.42835" lon="0.10894">
        <ele>554.8</ele>
        <time>2017-07-02T12:24:23Z</time>
      </trkpt>
      <trkpt lat="42.42836" lon="0.10902">
        <ele>554.8</ele>
        <time>2017-07-02T12:24:24Z</time>
      </trkpt>
      <trkpt lat="42.42837" lon="0.1091">
        <ele>554.8</ele>
        <time>2017-07-02T12:24:25Z</time>
      </trkpt>
      <trkpt lat="42.42835" lon="0.10918">
        <ele>554.8</ele>
        <time>2017-07-02T12:24:26Z</time>
      </trkpt>
      <trkpt lat="42.42836" lon="0.10925">
        <ele>554.9</ele>
        <time>2017-07-02T12:24:27Z</time>
      </trkpt>
      <trkpt lat="42.42838" lon="0.10933">
        <ele>554.9</ele>
        <time>2017-07-02T12:24:28Z</time>
      </trkpt>
      <trkpt lat="42.42839" lon="0.10941">
        <ele>555</ele>
        <time>2017-07-02T12:24:29Z</time>
      </trkpt>
      <trkpt lat="42.42841" lon="0.10949">
        <ele>555</ele>
        <time>2017-07-02T12:24:30Z</time>
      </trkpt>
      <trkpt lat="42.42842" lon="0.10957">
        <ele>554.9</ele>
        <time>2017-07-02T12:24:31Z</time>
      </trkpt>
      <trkpt lat="42.42845" lon="0.10964">
        <ele>554.9</ele>
        <time>2017-07-02T12:24:32Z</time>
      </trkpt>
      <trkpt lat="42.42846" lon="0.10972">
        <ele>554.8</ele>
        <time>2017-07-02T12:24:33Z</time>
      </trkpt>
      <trkpt lat="42.42847" lon="0.1098">
        <ele>554.8</ele>
        <time>2017-07-02T12:24:34Z</time>
      </trkpt>
      <trkpt lat="42.42849" lon="0.10986">
        <ele>554.7</ele>
        <time>2017-07-02T12:24:35Z</time>
      </trkpt>
      <trkpt lat="42.42854" lon="0.10992">
        <ele>554.5</ele>
        <time>2017-07-02T12:24:36Z</time>
      </trkpt>
      <trkpt lat="42.42857" lon="0.11">
        <ele>554.1</ele>
        <time>2017-07-02T12:24:37Z</time>
      </trkpt>
      <trkpt lat="42.4286" lon="0.11006">
        <ele>553.8</ele>
        <time>2017-07-02T12:24:38Z</time>
      </trkpt>
      <trkpt lat="42.42863" lon="0.11013">
        <ele>553.4</ele>
        <time>2017-07-02T12:24:39Z</time>
      </trkpt>
      <trkpt lat="42.42865" lon="0.11021">
        <ele>553.1</ele>
        <time>2017-07-02T12:24:40Z</time>
      </trkpt>
      <trkpt lat="42.42868" lon="0.11026">
        <ele>552.9</ele>
        <time>2017-07-02T12:24:41Z</time>
      </trkpt>
      <trkpt lat="42.4287" lon="0.11033">
        <ele>552.8</ele>
        <time>2017-07-02T12:24:42Z</time>
      </trkpt>
      <trkpt lat="42.42873" lon="0.11041">
        <ele>552.8</ele>
        <time>2017-07-02T12:24:43Z</time>
      </trkpt>
      <trkpt lat="42.42876" lon="0.11047">
        <ele>552.7</ele>
        <time>2017-07-02T12:24:44Z</time>
      </trkpt>
      <trkpt lat="42.42877" lon="0.11053">
        <ele>552.7</ele>
        <time>2017-07-02T12:24:45Z</time>
      </trkpt>
      <trkpt lat="42.4288" lon="0.1106">
        <ele>552.7</ele>
        <time>2017-07-02T12:24:46Z</time>
      </trkpt>
      <trkpt lat="42.42882" lon="0.11064">
        <ele>552.6</ele>
        <time>2017-07-02T12:24:47Z</time>
      </trkpt>
      <trkpt lat="42.42883" lon="0.11071">
        <ele>552.6</ele>
        <time>2017-07-02T12:24:48Z</time>
      </trkpt>
      <trkpt lat="42.42884" lon="0.11077">
        <ele>552.6</ele>
        <time>2017-07-02T12:24:49Z</time>
      </trkpt>
      <trkpt lat="42.42883" lon="0.11083">
        <ele>552.6</ele>
        <time>2017-07-02T12:24:50Z</time>
      </trkpt>
      <trkpt lat="42.42883" lon="0.11091">
        <ele>552.6</ele>
        <time>2017-07-02T12:24:51Z</time>
      </trkpt>
      <trkpt lat="42.42881" lon="0.11097">
        <ele>552.6</ele>
        <time>2017-07-02T12:24:52Z</time>
      </trkpt>
      <trkpt lat="42.42881" lon="0.11104">
        <ele>552.6</ele>
        <time>2017-07-02T12:24:53Z</time>
      </trkpt>
      <trkpt lat="42.4288" lon="0.11111">
        <ele>552.6</ele>
        <time>2017-07-02T12:24:54Z</time>
      </trkpt>
      <trkpt lat="42.42878" lon="0.11117">
        <ele>552.6</ele>
        <time>2017-07-02T12:24:55Z</time>
      </trkpt>
      <trkpt lat="42.42878" lon="0.11124">
        <ele>552.6</ele>
        <time>2017-07-02T12:24:56Z</time>
      </trkpt>
      <trkpt lat="42.42876" lon="0.1113">
        <ele>552.6</ele>
        <time>2017-07-02T12:24:57Z</time>
      </trkpt>
      <trkpt lat="42.42875" lon="0.11136">
        <ele>552.6</ele>
        <time>2017-07-02T12:24:58Z</time>
      </trkpt>
      <trkpt lat="42.42873" lon="0.11142">
        <ele>552.6</ele>
        <time>2017-07-02T12:24:59Z</time>
      </trkpt>
      <trkpt lat="42.42871" lon="0.11149">
        <ele>552.6</ele>
        <time>2017-07-02T12:25:00Z</time>
      </trkpt>
      <trkpt lat="42.42869" lon="0.11156">
        <ele>552.6</ele>
        <time>2017-07-02T12:25:01Z</time>
      </trkpt>
      <trkpt lat="42.42868" lon="0.11163">
        <ele>552.6</ele>
        <time>2017-07-02T12:25:02Z</time>
      </trkpt>
      <trkpt lat="42.42866" lon="0.11169">
        <ele>552.6</ele>
        <time>2017-07-02T12:25:03Z</time>
      </trkpt>
      <trkpt lat="42.42866" lon="0.11177">
        <ele>552.6</ele>
        <time>2017-07-02T12:25:04Z</time>
      </trkpt>
      <trkpt lat="42.42865" lon="0.11183">
        <ele>552.6</ele>
        <time>2017-07-02T12:25:05Z</time>
      </trkpt>
      <trkpt lat="42.42863" lon="0.1119">
        <ele>552.6</ele>
        <time>2017-07-02T12:25:06Z</time>
      </trkpt>
      <trkpt lat="42.42862" lon="0.11196">
        <ele>552.6</ele>
        <time>2017-07-02T12:25:07Z</time>
      </trkpt>
      <trkpt lat="42.4286" lon="0.11203">
        <ele>552.6</ele>
        <time>2017-07-02T12:25:08Z</time>
      </trkpt>
      <trkpt lat="42.42858" lon="0.1121">
        <ele>552.6</ele>
        <time>2017-07-02T12:25:09Z</time>
      </trkpt>
      <trkpt lat="42.42857" lon="0.11217">
        <ele>552.6</ele>
        <time>2017-07-02T12:25:10Z</time>
      </trkpt>
      <trkpt lat="42.42855" lon="0.11224">
        <ele>552.6</ele>
        <time>2017-07-02T12:25:11Z</time>
      </trkpt>
      <trkpt lat="42.42854" lon="0.1123">
        <ele>552.6</ele>
        <time>2017-07-02T12:25:12Z</time>
      </trkpt>
      <trkpt lat="42.42852" lon="0.11236">
        <ele>552.6</ele>
        <time>2017-07-02T12:25:13Z</time>
      </trkpt>
      <trkpt lat="42.4285" lon="0.11244">
        <ele>552.6</ele>
        <time>2017-07-02T12:25:14Z</time>
      </trkpt>
      <trkpt lat="42.42848" lon="0.1125">
        <ele>552.6</ele>
        <time>2017-07-02T12:25:15Z</time>
      </trkpt>
      <trkpt lat="42.42846" lon="0.11257">
        <ele>552.6</ele>
        <time>2017-07-02T12:25:16Z</time>
      </trkpt>
      <trkpt lat="42.42845" lon="0.11264">
        <ele>552.5</ele>
        <time>2017-07-02T12:25:17Z</time>
      </trkpt>
      <trkpt lat="42.42842" lon="0.11271">
        <ele>552.5</ele>
        <time>2017-07-02T12:25:18Z</time>
      </trkpt>
      <trkpt lat="42.42839" lon="0.11278">
        <ele>552.5</ele>
        <time>2017-07-02T12:25:19Z</time>
      </trkpt>
      <trkpt lat="42.42836" lon="0.11285">
        <ele>552.4</ele>
        <time>2017-07-02T12:25:20Z</time>
      </trkpt>
      <trkpt lat="42.42833" lon="0.11292">
        <ele>552.3</ele>
        <time>2017-07-02T12:25:21Z</time>
      </trkpt>
      <trkpt lat="42.4283" lon="0.11298">
        <ele>552.3</ele>
        <time>2017-07-02T12:25:22Z</time>
      </trkpt>
      <trkpt lat="42.42827" lon="0.11305">
        <ele>552.2</ele>
        <time>2017-07-02T12:25:23Z</time>
      </trkpt>
      <trkpt lat="42.42824" lon="0.11312">
        <ele>551.9</ele>
        <time>2017-07-02T12:25:24Z</time>
      </trkpt>
      <trkpt lat="42.42821" lon="0.11318">
        <ele>551.6</ele>
        <time>2017-07-02T12:25:25Z</time>
      </trkpt>
      <trkpt lat="42.42818" lon="0.11326">
        <ele>551.3</ele>
        <time>2017-07-02T12:25:26Z</time>
      </trkpt>
      <trkpt lat="42.42815" lon="0.11332">
        <ele>551.2</ele>
        <time>2017-07-02T12:25:27Z</time>
      </trkpt>
      <trkpt lat="42.42811" lon="0.11339">
        <ele>551.1</ele>
        <time>2017-07-02T12:25:28Z</time>
      </trkpt>
      <trkpt lat="42.42808" lon="0.11345">
        <ele>551</ele>
        <time>2017-07-02T12:25:29Z</time>
      </trkpt>
      <trkpt lat="42.42804" lon="0.11351">
        <ele>550.9</ele>
        <time>2017-07-02T12:25:30Z</time>
      </trkpt>
      <trkpt lat="42.42801" lon="0.11357">
        <ele>550.9</ele>
        <time>2017-07-02T12:25:31Z</time>
      </trkpt>
      <trkpt lat="42.42798" lon="0.11363">
        <ele>550.8</ele>
        <time>2017-07-02T12:25:32Z</time>
      </trkpt>
      <trkpt lat="42.42794" lon="0.11369">
        <ele>550.7</ele>
        <time>2017-07-02T12:25:33Z</time>
      </trkpt>
      <trkpt lat="42.4279" lon="0.11375">
        <ele>550.7</ele>
        <time>2017-07-02T12:25:34Z</time>
      </trkpt>
      <trkpt lat="42.42787" lon="0.11381">
        <ele>550.7</ele>
        <time>2017-07-02T12:25:35Z</time>
      </trkpt>
      <trkpt lat="42.42784" lon="0.11387">
        <ele>550.6</ele>
        <time>2017-07-02T12:25:36Z</time>
      </trkpt>
      <trkpt lat="42.42781" lon="0.11392">
        <ele>550.6</ele>
        <time>2017-07-02T12:25:37Z</time>
      </trkpt>
      <trkpt lat="42.42777" lon="0.11398">
        <ele>550.5</ele>
        <time>2017-07-02T12:25:38Z</time>
      </trkpt>
      <trkpt lat="42.42773" lon="0.11403">
        <ele>550.5</ele>
        <time>2017-07-02T12:25:39Z</time>
      </trkpt>
      <trkpt lat="42.42769" lon="0.11408">
        <ele>550.5</ele>
        <time>2017-07-02T12:25:40Z</time>
      </trkpt>
      <trkpt lat="42.42765" lon="0.11413">
        <ele>550.4</ele>
        <time>2017-07-02T12:25:41Z</time>
      </trkpt>
      <trkpt lat="42.42761" lon="0.11419">
        <ele>550.4</ele>
        <time>2017-07-02T12:25:42Z</time>
      </trkpt>
      <trkpt lat="42.42757" lon="0.11423">
        <ele>550.4</ele>
        <time>2017-07-02T12:25:43Z</time>
      </trkpt>
      <trkpt lat="42.42753" lon="0.11428">
        <ele>550.4</ele>
        <time>2017-07-02T12:25:44Z</time>
      </trkpt>
      <trkpt lat="42.42749" lon="0.11433">
        <ele>550.4</ele>
        <time>2017-07-02T12:25:45Z</time>
      </trkpt>
      <trkpt lat="42.42745" lon="0.11437">
        <ele>550.4</ele>
        <time>2017-07-02T12:25:46Z</time>
      </trkpt>
      <trkpt lat="42.4274" lon="0.11441">
        <ele>550.4</ele>
        <time>2017-07-02T12:25:47Z</time>
      </trkpt>
      <trkpt lat="42.42735" lon="0.11445">
        <ele>550.4</ele>
        <time>2017-07-02T12:25:48Z</time>
      </trkpt>
      <trkpt lat="42.42731" lon="0.1145">
        <ele>550.4</ele>
        <time>2017-07-02T12:25:49Z</time>
      </trkpt>
      <trkpt lat="42.42727" lon="0.11454">
        <ele>550.4</ele>
        <time>2017-07-02T12:25:50Z</time>
      </trkpt>
      <trkpt lat="42.42723" lon="0.11458">
        <ele>550.4</ele>
        <time>2017-07-02T12:25:51Z</time>
      </trkpt>
      <trkpt lat="42.42718" lon="0.11464">
        <ele>550.3</ele>
        <time>2017-07-02T12:25:52Z</time>
      </trkpt>
      <trkpt lat="42.42714" lon="0.11468">
        <ele>550.3</ele>
        <time>2017-07-02T12:25:53Z</time>
      </trkpt>
      <trkpt lat="42.4271" lon="0.11474">
        <ele>550.3</ele>
        <time>2017-07-02T12:25:54Z</time>
      </trkpt>
      <trkpt lat="42.42706" lon="0.11478">
        <ele>550.3</ele>
        <time>2017-07-02T12:25:55Z</time>
      </trkpt>
      <trkpt lat="42.42702" lon="0.11483">
        <ele>550.2</ele>
        <time>2017-07-02T12:25:56Z</time>
      </trkpt>
      <trkpt lat="42.42698" lon="0.11488">
        <ele>550.2</ele>
        <time>2017-07-02T12:25:57Z</time>
      </trkpt>
      <trkpt lat="42.42694" lon="0.11492">
        <ele>550.2</ele>
        <time>2017-07-02T12:25:58Z</time>
      </trkpt>
      <trkpt lat="42.4269" lon="0.11497">
        <ele>550.1</ele>
        <time>2017-07-02T12:25:59Z</time>
      </trkpt>
      <trkpt lat="42.42685" lon="0.11502">
        <ele>550</ele>
        <time>2017-07-02T12:26:00Z</time>
      </trkpt>
      <trkpt lat="42.42681" lon="0.11507">
        <ele>549.7</ele>
        <time>2017-07-02T12:26:01Z</time>
      </trkpt>
      <trkpt lat="42.42676" lon="0.11511">
        <ele>549.4</ele>
        <time>2017-07-02T12:26:02Z</time>
      </trkpt>
      <trkpt lat="42.42672" lon="0.11516">
        <ele>549.2</ele>
        <time>2017-07-02T12:26:03Z</time>
      </trkpt>
      <trkpt lat="42.42668" lon="0.11521">
        <ele>548.9</ele>
        <time>2017-07-02T12:26:04Z</time>
      </trkpt>
      <trkpt lat="42.42664" lon="0.11526">
        <ele>548.8</ele>
        <time>2017-07-02T12:26:05Z</time>
      </trkpt>
      <trkpt lat="42.4266" lon="0.1153">
        <ele>548.8</ele>
        <time>2017-07-02T12:26:06Z</time>
      </trkpt>
      <trkpt lat="42.42656" lon="0.11535">
        <ele>548.7</ele>
        <time>2017-07-02T12:26:07Z</time>
      </trkpt>
      <trkpt lat="42.42651" lon="0.1154">
        <ele>548.7</ele>
        <time>2017-07-02T12:26:08Z</time>
      </trkpt>
      <trkpt lat="42.42647" lon="0.11544">
        <ele>548.6</ele>
        <time>2017-07-02T12:26:09Z</time>
      </trkpt>
      <trkpt lat="42.42643" lon="0.11548">
        <ele>548.6</ele>
        <time>2017-07-02T12:26:10Z</time>
      </trkpt>
      <trkpt lat="42.42638" lon="0.11553">
        <ele>548.5</ele>
        <time>2017-07-02T12:26:11Z</time>
      </trkpt>
      <trkpt lat="42.42634" lon="0.11558">
        <ele>548.5</ele>
        <time>2017-07-02T12:26:12Z</time>
      </trkpt>
      <trkpt lat="42.4263" lon="0.11564">
        <ele>548.5</ele>
        <time>2017-07-02T12:26:13Z</time>
      </trkpt>
      <trkpt lat="42.42627" lon="0.11569">
        <ele>548.4</ele>
        <time>2017-07-02T12:26:14Z</time>
      </trkpt>
      <trkpt lat="42.42622" lon="0.11573">
        <ele>548.4</ele>
        <time>2017-07-02T12:26:15Z</time>
      </trkpt>
      <trkpt lat="42.42618" lon="0.11578">
        <ele>548.4</ele>
        <time>2017-07-02T12:26:16Z</time>
      </trkpt>
      <trkpt lat="42.42614" lon="0.11582">
        <ele>548.4</ele>
        <time>2017-07-02T12:26:17Z</time>
      </trkpt>
      <trkpt lat="42.4261" lon="0.11586">
        <ele>548.4</ele>
        <time>2017-07-02T12:26:18Z</time>
      </trkpt>
      <trkpt lat="42.42606" lon="0.11591">
        <ele>548.4</ele>
        <time>2017-07-02T12:26:19Z</time>
      </trkpt>
      <trkpt lat="42.42602" lon="0.11595">
        <ele>548.4</ele>
        <time>2017-07-02T12:26:20Z</time>
      </trkpt>
      <trkpt lat="42.42598" lon="0.11599">
        <ele>548.4</ele>
        <time>2017-07-02T12:26:21Z</time>
      </trkpt>
      <trkpt lat="42.42594" lon="0.11603">
        <ele>548.4</ele>
        <time>2017-07-02T12:26:22Z</time>
      </trkpt>
      <trkpt lat="42.4259" lon="0.11608">
        <ele>548.4</ele>
        <time>2017-07-02T12:26:23Z</time>
      </trkpt>
      <trkpt lat="42.42586" lon="0.11612">
        <ele>548.4</ele>
        <time>2017-07-02T12:26:24Z</time>
      </trkpt>
      <trkpt lat="42.42582" lon="0.11617">
        <ele>548.4</ele>
        <time>2017-07-02T12:26:25Z</time>
      </trkpt>
      <trkpt lat="42.42578" lon="0.11621">
        <ele>548.4</ele>
        <time>2017-07-02T12:26:26Z</time>
      </trkpt>
      <trkpt lat="42.42574" lon="0.11626">
        <ele>548.4</ele>
        <time>2017-07-02T12:26:27Z</time>
      </trkpt>
      <trkpt lat="42.4257" lon="0.11631">
        <ele>548.4</ele>
        <time>2017-07-02T12:26:28Z</time>
      </trkpt>
      <trkpt lat="42.42566" lon="0.11636">
        <ele>548.4</ele>
        <time>2017-07-02T12:26:29Z</time>
      </trkpt>
      <trkpt lat="42.42562" lon="0.11641">
        <ele>548.4</ele>
        <time>2017-07-02T12:26:30Z</time>
      </trkpt>
      <trkpt lat="42.42558" lon="0.11646">
        <ele>548.4</ele>
        <time>2017-07-02T12:26:31Z</time>
      </trkpt>
      <trkpt lat="42.42554" lon="0.11651">
        <ele>548.4</ele>
        <time>2017-07-02T12:26:32Z</time>
      </trkpt>
      <trkpt lat="42.4255" lon="0.11656">
        <ele>548.4</ele>
        <time>2017-07-02T12:26:33Z</time>
      </trkpt>
      <trkpt lat="42.42546" lon="0.11661">
        <ele>548.3</ele>
        <time>2017-07-02T12:26:34Z</time>
      </trkpt>
      <trkpt lat="42.42541" lon="0.11666">
        <ele>548.2</ele>
        <time>2017-07-02T12:26:35Z</time>
      </trkpt>
      <trkpt lat="42.42537" lon="0.11671">
        <ele>548.2</ele>
        <time>2017-07-02T12:26:36Z</time>
      </trkpt>
      <trkpt lat="42.42532" lon="0.11676">
        <ele>548.1</ele>
        <time>2017-07-02T12:26:37Z</time>
      </trkpt>
      <trkpt lat="42.42527" lon="0.11681">
        <ele>547.8</ele>
        <time>2017-07-02T12:26:38Z</time>
      </trkpt>
      <trkpt lat="42.42522" lon="0.11686">
        <ele>547.5</ele>
        <time>2017-07-02T12:26:39Z</time>
      </trkpt>
      <trkpt lat="42.42518" lon="0.11691">
        <ele>547.1</ele>
        <time>2017-07-02T12:26:40Z</time>
      </trkpt>
      <trkpt lat="42.42513" lon="0.11697">
        <ele>546.9</ele>
        <time>2017-07-02T12:26:41Z</time>
      </trkpt>
      <trkpt lat="42.42509" lon="0.11702">
        <ele>546.8</ele>
        <time>2017-07-02T12:26:42Z</time>
      </trkpt>
      <trkpt lat="42.42504" lon="0.11706">
        <ele>546.7</ele>
        <time>2017-07-02T12:26:43Z</time>
      </trkpt>
      <trkpt lat="42.42498" lon="0.11711">
        <ele>546.6</ele>
        <time>2017-07-02T12:26:44Z</time>
      </trkpt>
      <trkpt lat="42.42494" lon="0.11715">
        <ele>546.5</ele>
        <time>2017-07-02T12:26:45Z</time>
      </trkpt>
      <trkpt lat="42.42489" lon="0.1172">
        <ele>546.3</ele>
        <time>2017-07-02T12:26:46Z</time>
      </trkpt>
      <trkpt lat="42.42483" lon="0.11724">
        <ele>546.3</ele>
        <time>2017-07-02T12:26:47Z</time>
      </trkpt>
      <trkpt lat="42.42478" lon="0.11728">
        <ele>546.3</ele>
        <time>2017-07-02T12:26:48Z</time>
      </trkpt>
      <trkpt lat="42.42474" lon="0.1173">
        <ele>546.2</ele>
        <time>2017-07-02T12:26:49Z</time>
      </trkpt>
      <trkpt lat="42.4247" lon="0.11736">
        <ele>546.2</ele>
        <time>2017-07-02T12:26:50Z</time>
      </trkpt>
      <trkpt lat="42.42465" lon="0.11739">
        <ele>546.2</ele>
        <time>2017-07-02T12:26:51Z</time>
      </trkpt>
      <trkpt lat="42.4246" lon="0.11743">
        <ele>546.2</ele>
        <time>2017-07-02T12:26:52Z</time>
      </trkpt>
      <trkpt lat="42.42454" lon="0.11748">
        <ele>546.2</ele>
        <time>2017-07-02T12:26:53Z</time>
      </trkpt>
      <trkpt lat="42.42449" lon="0.11753">
        <ele>546.2</ele>
        <time>2017-07-02T12:26:54Z</time>
      </trkpt>
      <trkpt lat="42.42444" lon="0.11758">
        <ele>546.2</ele>
        <time>2017-07-02T12:26:55Z</time>
      </trkpt>
      <trkpt lat="42.42439" lon="0.11762">
        <ele>546.2</ele>
        <time>2017-07-02T12:26:56Z</time>
      </trkpt>
      <trkpt lat="42.42433" lon="0.11766">
        <ele>546.2</ele>
        <time>2017-07-02T12:26:57Z</time>
      </trkpt>
      <trkpt lat="42.42428" lon="0.1177">
        <ele>546.2</ele>
        <time>2017-07-02T12:26:58Z</time>
      </trkpt>
      <trkpt lat="42.42422" lon="0.11775">
        <ele>546.2</ele>
        <time>2017-07-02T12:26:59Z</time>
      </trkpt>
      <trkpt lat="42.42417" lon="0.11779">
        <ele>546.2</ele>
        <time>2017-07-02T12:27:00Z</time>
      </trkpt>
      <trkpt lat="42.42412" lon="0.11784">
        <ele>546.2</ele>
        <time>2017-07-02T12:27:01Z</time>
      </trkpt>
      <trkpt lat="42.42406" lon="0.11789">
        <ele>546.2</ele>
        <time>2017-07-02T12:27:02Z</time>
      </trkpt>
      <trkpt lat="42.42401" lon="0.11794">
        <ele>546.2</ele>
        <time>2017-07-02T12:27:03Z</time>
      </trkpt>
      <trkpt lat="42.42395" lon="0.11797">
        <ele>546.2</ele>
        <time>2017-07-02T12:27:04Z</time>
      </trkpt>
      <trkpt lat="42.42389" lon="0.11802">
        <ele>546.2</ele>
        <time>2017-07-02T12:27:05Z</time>
      </trkpt>
      <trkpt lat="42.42384" lon="0.11807">
        <ele>546.2</ele>
        <time>2017-07-02T12:27:06Z</time>
      </trkpt>
      <trkpt lat="42.42379" lon="0.11811">
        <ele>546.2</ele>
        <time>2017-07-02T12:27:07Z</time>
      </trkpt>
      <trkpt lat="42.42376" lon="0.11815">
        <ele>546.2</ele>
        <time>2017-07-02T12:27:08Z</time>
      </trkpt>
      <trkpt lat="42.42371" lon="0.11821">
        <ele>546.2</ele>
        <time>2017-07-02T12:27:09Z</time>
      </trkpt>
      <trkpt lat="42.42365" lon="0.11826">
        <ele>546.2</ele>
        <time>2017-07-02T12:27:10Z</time>
      </trkpt>
      <trkpt lat="42.42361" lon="0.11832">
        <ele>546.2</ele>
        <time>2017-07-02T12:27:11Z</time>
      </trkpt>
      <trkpt lat="42.42357" lon="0.11837">
        <ele>546.2</ele>
        <time>2017-07-02T12:27:12Z</time>
      </trkpt>
      <trkpt lat="42.42354" lon="0.11843">
        <ele>546.2</ele>
        <time>2017-07-02T12:27:13Z</time>
      </trkpt>
      <trkpt lat="42.42349" lon="0.11848">
        <ele>546.2</ele>
        <time>2017-07-02T12:27:14Z</time>
      </trkpt>
      <trkpt lat="42.42345" lon="0.11853">
        <ele>546.2</ele>
        <time>2017-07-02T12:27:15Z</time>
      </trkpt>
      <trkpt lat="42.4234" lon="0.11859">
        <ele>546.2</ele>
        <time>2017-07-02T12:27:16Z</time>
      </trkpt>
      <trkpt lat="42.42337" lon="0.11866">
        <ele>546.2</ele>
        <time>2017-07-02T12:27:17Z</time>
      </trkpt>
      <trkpt lat="42.42333" lon="0.11872">
        <ele>546.2</ele>
        <time>2017-07-02T12:27:18Z</time>
      </trkpt>
      <trkpt lat="42.42329" lon="0.11877">
        <ele>546.1</ele>
        <time>2017-07-02T12:27:19Z</time>
      </trkpt>
      <trkpt lat="42.42325" lon="0.11884">
        <ele>546.1</ele>
        <time>2017-07-02T12:27:20Z</time>
      </trkpt>
      <trkpt lat="42.42321" lon="0.11889">
        <ele>546.1</ele>
        <time>2017-07-02T12:27:21Z</time>
      </trkpt>
      <trkpt lat="42.42318" lon="0.11895">
        <ele>546.1</ele>
        <time>2017-07-02T12:27:22Z</time>
      </trkpt>
      <trkpt lat="42.42314" lon="0.11901">
        <ele>546.1</ele>
        <time>2017-07-02T12:27:23Z</time>
      </trkpt>
      <trkpt lat="42.42311" lon="0.11907">
        <ele>546</ele>
        <time>2017-07-02T12:27:24Z</time>
      </trkpt>
      <trkpt lat="42.42307" lon="0.11913">
        <ele>546</ele>
        <time>2017-07-02T12:27:25Z</time>
      </trkpt>
      <trkpt lat="42.42303" lon="0.1192">
        <ele>546</ele>
        <time>2017-07-02T12:27:26Z</time>
      </trkpt>
      <trkpt lat="42.423" lon="0.11926">
        <ele>545.9</ele>
        <time>2017-07-02T12:27:27Z</time>
      </trkpt>
      <trkpt lat="42.42296" lon="0.11932">
        <ele>545.8</ele>
        <time>2017-07-02T12:27:28Z</time>
      </trkpt>
      <trkpt lat="42.42292" lon="0.11938">
        <ele>545.8</ele>
        <time>2017-07-02T12:27:29Z</time>
      </trkpt>
      <trkpt lat="42.42289" lon="0.11944">
        <ele>545.5</ele>
        <time>2017-07-02T12:27:30Z</time>
      </trkpt>
      <trkpt lat="42.42285" lon="0.11951">
        <ele>545.2</ele>
        <time>2017-07-02T12:27:31Z</time>
      </trkpt>
      <trkpt lat="42.42282" lon="0.11957">
        <ele>545</ele>
        <time>2017-07-02T12:27:32Z</time>
      </trkpt>
      <trkpt lat="42.42278" lon="0.11964">
        <ele>544.8</ele>
        <time>2017-07-02T12:27:33Z</time>
      </trkpt>
      <trkpt lat="42.42275" lon="0.1197">
        <ele>544.7</ele>
        <time>2017-07-02T12:27:34Z</time>
      </trkpt>
      <trkpt lat="42.42271" lon="0.11977">
        <ele>544.6</ele>
        <time>2017-07-02T12:27:35Z</time>
      </trkpt>
      <trkpt lat="42.42267" lon="0.11983">
        <ele>544.5</ele>
        <time>2017-07-02T12:27:36Z</time>
      </trkpt>
      <trkpt lat="42.42264" lon="0.1199">
        <ele>544.4</ele>
        <time>2017-07-02T12:27:37Z</time>
      </trkpt>
      <trkpt lat="42.4226" lon="0.11997">
        <ele>544.3</ele>
        <time>2017-07-02T12:27:38Z</time>
      </trkpt>
      <trkpt lat="42.42256" lon="0.12004">
        <ele>544.3</ele>
        <time>2017-07-02T12:27:39Z</time>
      </trkpt>
      <trkpt lat="42.42253" lon="0.1201">
        <ele>544.2</ele>
        <time>2017-07-02T12:27:40Z</time>
      </trkpt>
      <trkpt lat="42.42249" lon="0.12017">
        <ele>544.2</ele>
        <time>2017-07-02T12:27:41Z</time>
      </trkpt>
      <trkpt lat="42.42245" lon="0.12024">
        <ele>544.1</ele>
        <time>2017-07-02T12:27:42Z</time>
      </trkpt>
      <trkpt lat="42.42241" lon="0.1203">
        <ele>544.1</ele>
        <time>2017-07-02T12:27:43Z</time>
      </trkpt>
      <trkpt lat="42.42237" lon="0.12037">
        <ele>544.1</ele>
        <time>2017-07-02T12:27:44Z</time>
      </trkpt>
      <trkpt lat="42.42233" lon="0.12043">
        <ele>544</ele>
        <time>2017-07-02T12:27:45Z</time>
      </trkpt>
      <trkpt lat="42.42229" lon="0.1205">
        <ele>544</ele>
        <time>2017-07-02T12:27:46Z</time>
      </trkpt>
      <trkpt lat="42.42226" lon="0.12056">
        <ele>543.9</ele>
        <time>2017-07-02T12:27:47Z</time>
      </trkpt>
      <trkpt lat="42.42222" lon="0.12063">
        <ele>543.8</ele>
        <time>2017-07-02T12:27:48Z</time>
      </trkpt>
      <trkpt lat="42.42219" lon="0.12069">
        <ele>543.7</ele>
        <time>2017-07-02T12:27:49Z</time>
      </trkpt>
      <trkpt lat="42.42215" lon="0.12076">
        <ele>543.6</ele>
        <time>2017-07-02T12:27:50Z</time>
      </trkpt>
      <trkpt lat="42.42211" lon="0.12083">
        <ele>543.4</ele>
        <time>2017-07-02T12:27:51Z</time>
      </trkpt>
      <trkpt lat="42.42207" lon="0.12088">
        <ele>543.1</ele>
        <time>2017-07-02T12:27:52Z</time>
      </trkpt>
      <trkpt lat="42.42203" lon="0.12094">
        <ele>542.8</ele>
        <time>2017-07-02T12:27:53Z</time>
      </trkpt>
      <trkpt lat="42.422" lon="0.121">
        <ele>542.6</ele>
        <time>2017-07-02T12:27:54Z</time>
      </trkpt>
      <trkpt lat="42.42196" lon="0.12107">
        <ele>542.5</ele>
        <time>2017-07-02T12:27:55Z</time>
      </trkpt>
      <trkpt lat="42.42192" lon="0.12113">
        <ele>542.4</ele>
        <time>2017-07-02T12:27:56Z</time>
      </trkpt>
      <trkpt lat="42.42188" lon="0.12119">
        <ele>542.3</ele>
        <time>2017-07-02T12:27:57Z</time>
      </trkpt>
      <trkpt lat="42.42185" lon="0.12126">
        <ele>542.2</ele>
        <time>2017-07-02T12:27:58Z</time>
      </trkpt>
      <trkpt lat="42.42181" lon="0.12132">
        <ele>542.1</ele>
        <time>2017-07-02T12:27:59Z</time>
      </trkpt>
      <trkpt lat="42.42177" lon="0.12139">
        <ele>542.1</ele>
        <time>2017-07-02T12:28:00Z</time>
      </trkpt>
      <trkpt lat="42.42174" lon="0.12145">
        <ele>542.1</ele>
        <time>2017-07-02T12:28:01Z</time>
      </trkpt>
      <trkpt lat="42.4217" lon="0.12152">
        <ele>542.1</ele>
        <time>2017-07-02T12:28:02Z</time>
      </trkpt>
      <trkpt lat="42.42166" lon="0.12158">
        <ele>542</ele>
        <time>2017-07-02T12:28:03Z</time>
      </trkpt>
      <trkpt lat="42.42162" lon="0.12164">
        <ele>542</ele>
        <time>2017-07-02T12:28:04Z</time>
      </trkpt>
      <trkpt lat="42.42158" lon="0.1217">
        <ele>542</ele>
        <time>2017-07-02T12:28:05Z</time>
      </trkpt>
      <trkpt lat="42.42155" lon="0.12176">
        <ele>542</ele>
        <time>2017-07-02T12:28:06Z</time>
      </trkpt>
      <trkpt lat="42.42151" lon="0.12182">
        <ele>542</ele>
        <time>2017-07-02T12:28:07Z</time>
      </trkpt>
      <trkpt lat="42.42147" lon="0.12188">
        <ele>542</ele>
        <time>2017-07-02T12:28:08Z</time>
      </trkpt>
      <trkpt lat="42.42144" lon="0.12196">
        <ele>542</ele>
        <time>2017-07-02T12:28:09Z</time>
      </trkpt>
      <trkpt lat="42.4214" lon="0.12202">
        <ele>542</ele>
        <time>2017-07-02T12:28:10Z</time>
      </trkpt>
      <trkpt lat="42.42136" lon="0.12209">
        <ele>542</ele>
        <time>2017-07-02T12:28:11Z</time>
      </trkpt>
      <trkpt lat="42.42132" lon="0.12215">
        <ele>542</ele>
        <time>2017-07-02T12:28:12Z</time>
      </trkpt>
      <trkpt lat="42.42128" lon="0.12221">
        <ele>541.9</ele>
        <time>2017-07-02T12:28:13Z</time>
      </trkpt>
      <trkpt lat="42.42124" lon="0.12228">
        <ele>541.9</ele>
        <time>2017-07-02T12:28:14Z</time>
      </trkpt>
      <trkpt lat="42.4212" lon="0.12235">
        <ele>541.9</ele>
        <time>2017-07-02T12:28:15Z</time>
      </trkpt>
      <trkpt lat="42.42116" lon="0.12241">
        <ele>541.9</ele>
        <time>2017-07-02T12:28:16Z</time>
      </trkpt>
      <trkpt lat="42.42113" lon="0.12247">
        <ele>541.9</ele>
        <time>2017-07-02T12:28:17Z</time>
      </trkpt>
      <trkpt lat="42.4211" lon="0.12254">
        <ele>541.8</ele>
        <time>2017-07-02T12:28:18Z</time>
      </trkpt>
      <trkpt lat="42.42107" lon="0.12261">
        <ele>541.8</ele>
        <time>2017-07-02T12:28:19Z</time>
      </trkpt>
      <trkpt lat="42.42103" lon="0.12267">
        <ele>541.8</ele>
        <time>2017-07-02T12:28:20Z</time>
      </trkpt>
      <trkpt lat="42.42099" lon="0.12274">
        <ele>541.7</ele>
        <time>2017-07-02T12:28:21Z</time>
      </trkpt>
      <trkpt lat="42.42096" lon="0.1228">
        <ele>541.6</ele>
        <time>2017-07-02T12:28:22Z</time>
      </trkpt>
      <trkpt lat="42.42093" lon="0.12287">
        <ele>541.2</ele>
        <time>2017-07-02T12:28:23Z</time>
      </trkpt>
      <trkpt lat="42.42089" lon="0.12293">
        <ele>540.9</ele>
        <time>2017-07-02T12:28:24Z</time>
      </trkpt>
      <trkpt lat="42.42086" lon="0.12299">
        <ele>540.6</ele>
        <time>2017-07-02T12:28:25Z</time>
      </trkpt>
      <trkpt lat="42.42083" lon="0.12306">
        <ele>540.5</ele>
        <time>2017-07-02T12:28:26Z</time>
      </trkpt>
      <trkpt lat="42.4208" lon="0.12313">
        <ele>540.4</ele>
        <time>2017-07-02T12:28:27Z</time>
      </trkpt>
      <trkpt lat="42.42077" lon="0.12319">
        <ele>540.3</ele>
        <time>2017-07-02T12:28:28Z</time>
      </trkpt>
      <trkpt lat="42.42073" lon="0.12324">
        <ele>540.2</ele>
        <time>2017-07-02T12:28:29Z</time>
      </trkpt>
      <trkpt lat="42.42069" lon="0.1233">
        <ele>540.1</ele>
        <time>2017-07-02T12:28:30Z</time>
      </trkpt>
      <trkpt lat="42.42065" lon="0.12336">
        <ele>540.1</ele>
        <time>2017-07-02T12:28:31Z</time>
      </trkpt>
      <trkpt lat="42.42062" lon="0.12342">
        <ele>540.1</ele>
        <time>2017-07-02T12:28:32Z</time>
      </trkpt>
      <trkpt lat="42.42058" lon="0.12348">
        <ele>540</ele>
        <time>2017-07-02T12:28:33Z</time>
      </trkpt>
      <trkpt lat="42.42054" lon="0.12354">
        <ele>540</ele>
        <time>2017-07-02T12:28:34Z</time>
      </trkpt>
      <trkpt lat="42.42051" lon="0.12361">
        <ele>540</ele>
        <time>2017-07-02T12:28:35Z</time>
      </trkpt>
      <trkpt lat="42.42048" lon="0.12366">
        <ele>540</ele>
        <time>2017-07-02T12:28:36Z</time>
      </trkpt>
      <trkpt lat="42.42045" lon="0.12372">
        <ele>540</ele>
        <time>2017-07-02T12:28:37Z</time>
      </trkpt>
      <trkpt lat="42.42041" lon="0.12379">
        <ele>540</ele>
        <time>2017-07-02T12:28:38Z</time>
      </trkpt>
      <trkpt lat="42.42038" lon="0.12385">
        <ele>540</ele>
        <time>2017-07-02T12:28:39Z</time>
      </trkpt>
      <trkpt lat="42.42034" lon="0.1239">
        <ele>540</ele>
        <time>2017-07-02T12:28:40Z</time>
      </trkpt>
      <trkpt lat="42.42031" lon="0.12396">
        <ele>540</ele>
        <time>2017-07-02T12:28:41Z</time>
      </trkpt>
      <trkpt lat="42.42027" lon="0.12402">
        <ele>540</ele>
        <time>2017-07-02T12:28:42Z</time>
      </trkpt>
      <trkpt lat="42.42024" lon="0.12408">
        <ele>540</ele>
        <time>2017-07-02T12:28:43Z</time>
      </trkpt>
      <trkpt lat="42.42021" lon="0.12413">
        <ele>540</ele>
        <time>2017-07-02T12:28:44Z</time>
      </trkpt>
      <trkpt lat="42.42016" lon="0.12419">
        <ele>540</ele>
        <time>2017-07-02T12:28:45Z</time>
      </trkpt>
      <trkpt lat="42.42013" lon="0.12426">
        <ele>540</ele>
        <time>2017-07-02T12:28:46Z</time>
      </trkpt>
      <trkpt lat="42.42009" lon="0.12432">
        <ele>540</ele>
        <time>2017-07-02T12:28:47Z</time>
      </trkpt>
      <trkpt lat="42.42006" lon="0.12439">
        <ele>540</ele>
        <time>2017-07-02T12:28:48Z</time>
      </trkpt>
      <trkpt lat="42.42002" lon="0.12444">
        <ele>540</ele>
        <time>2017-07-02T12:28:49Z</time>
      </trkpt>
      <trkpt lat="42.41998" lon="0.1245">
        <ele>540</ele>
        <time>2017-07-02T12:28:50Z</time>
      </trkpt>
      <trkpt lat="42.41995" lon="0.12456">
        <ele>540</ele>
        <time>2017-07-02T12:28:51Z</time>
      </trkpt>
      <trkpt lat="42.41991" lon="0.12462">
        <ele>540</ele>
        <time>2017-07-02T12:28:52Z</time>
      </trkpt>
      <trkpt lat="42.41987" lon="0.12468">
        <ele>540</ele>
        <time>2017-07-02T12:28:53Z</time>
      </trkpt>
      <trkpt lat="42.41984" lon="0.12473">
        <ele>540</ele>
        <time>2017-07-02T12:28:54Z</time>
      </trkpt>
      <trkpt lat="42.41981" lon="0.12479">
        <ele>540</ele>
        <time>2017-07-02T12:28:55Z</time>
      </trkpt>
      <trkpt lat="42.41977" lon="0.12484">
        <ele>539.9</ele>
        <time>2017-07-02T12:28:56Z</time>
      </trkpt>
      <trkpt lat="42.41973" lon="0.12491">
        <ele>539.9</ele>
        <time>2017-07-02T12:28:57Z</time>
      </trkpt>
      <trkpt lat="42.4197" lon="0.12497">
        <ele>539.9</ele>
        <time>2017-07-02T12:28:58Z</time>
      </trkpt>
      <trkpt lat="42.41966" lon="0.12503">
        <ele>539.9</ele>
        <time>2017-07-02T12:28:59Z</time>
      </trkpt>
      <trkpt lat="42.41962" lon="0.12509">
        <ele>539.8</ele>
        <time>2017-07-02T12:29:00Z</time>
      </trkpt>
      <trkpt lat="42.41959" lon="0.12515">
        <ele>539.8</ele>
        <time>2017-07-02T12:29:01Z</time>
      </trkpt>
      <trkpt lat="42.41956" lon="0.12521">
        <ele>539.8</ele>
        <time>2017-07-02T12:29:02Z</time>
      </trkpt>
      <trkpt lat="42.41953" lon="0.12527">
        <ele>539.6</ele>
        <time>2017-07-02T12:29:03Z</time>
      </trkpt>
      <trkpt lat="42.41949" lon="0.12533">
        <ele>539.4</ele>
        <time>2017-07-02T12:29:04Z</time>
      </trkpt>
      <trkpt lat="42.41946" lon="0.1254">
        <ele>539</ele>
        <time>2017-07-02T12:29:05Z</time>
      </trkpt>
      <trkpt lat="42.41941" lon="0.12546">
        <ele>538.7</ele>
        <time>2017-07-02T12:29:06Z</time>
      </trkpt>
      <trkpt lat="42.41938" lon="0.12552">
        <ele>538.5</ele>
        <time>2017-07-02T12:29:07Z</time>
      </trkpt>
      <trkpt lat="42.41936" lon="0.12559">
        <ele>538.4</ele>
        <time>2017-07-02T12:29:08Z</time>
      </trkpt>
      <trkpt lat="42.41932" lon="0.12565">
        <ele>538.2</ele>
        <time>2017-07-02T12:29:09Z</time>
      </trkpt>
      <trkpt lat="42.41928" lon="0.12571">
        <ele>538.1</ele>
        <time>2017-07-02T12:29:10Z</time>
      </trkpt>
      <trkpt lat="42.41924" lon="0.12578">
        <ele>538.1</ele>
        <time>2017-07-02T12:29:11Z</time>
      </trkpt>
      <trkpt lat="42.41921" lon="0.12584">
        <ele>538</ele>
        <time>2017-07-02T12:29:12Z</time>
      </trkpt>
      <trkpt lat="42.41917" lon="0.12589">
        <ele>538</ele>
        <time>2017-07-02T12:29:13Z</time>
      </trkpt>
      <trkpt lat="42.41913" lon="0.12593">
        <ele>537.9</ele>
        <time>2017-07-02T12:29:14Z</time>
      </trkpt>
      <trkpt lat="42.41908" lon="0.12594">
        <ele>537.9</ele>
        <time>2017-07-02T12:29:15Z</time>
      </trkpt>
      <trkpt lat="42.41903" lon="0.12594">
        <ele>537.8</ele>
        <time>2017-07-02T12:29:16Z</time>
      </trkpt>
      <trkpt lat="42.41897" lon="0.12594">
        <ele>537.7</ele>
        <time>2017-07-02T12:29:17Z</time>
      </trkpt>
      <trkpt lat="42.41891" lon="0.12596">
        <ele>537.6</ele>
        <time>2017-07-02T12:29:18Z</time>
      </trkpt>
      <trkpt lat="42.41886" lon="0.12598">
        <ele>537.5</ele>
        <time>2017-07-02T12:29:19Z</time>
      </trkpt>
      <trkpt lat="42.41882" lon="0.12601">
        <ele>537.3</ele>
        <time>2017-07-02T12:29:20Z</time>
      </trkpt>
      <trkpt lat="42.41878" lon="0.12605">
        <ele>537</ele>
        <time>2017-07-02T12:29:21Z</time>
      </trkpt>
      <trkpt lat="42.41874" lon="0.1261">
        <ele>536.7</ele>
        <time>2017-07-02T12:29:22Z</time>
      </trkpt>
      <trkpt lat="42.4187" lon="0.12613">
        <ele>536.4</ele>
        <time>2017-07-02T12:29:23Z</time>
      </trkpt>
      <trkpt lat="42.41865" lon="0.12616">
        <ele>536.1</ele>
        <time>2017-07-02T12:29:24Z</time>
      </trkpt>
      <trkpt lat="42.41859" lon="0.12621">
        <ele>536.1</ele>
        <time>2017-07-02T12:29:25Z</time>
      </trkpt>
      <trkpt lat="42.41854" lon="0.12624">
        <ele>536</ele>
        <time>2017-07-02T12:29:26Z</time>
      </trkpt>
      <trkpt lat="42.4185" lon="0.12627">
        <ele>535.9</ele>
        <time>2017-07-02T12:29:27Z</time>
      </trkpt>
      <trkpt lat="42.41845" lon="0.12629">
        <ele>535.9</ele>
        <time>2017-07-02T12:29:28Z</time>
      </trkpt>
      <trkpt lat="42.41841" lon="0.12634">
        <ele>535.9</ele>
        <time>2017-07-02T12:29:29Z</time>
      </trkpt>
      <trkpt lat="42.41837" lon="0.1264">
        <ele>535.8</ele>
        <time>2017-07-02T12:29:30Z</time>
      </trkpt>
      <trkpt lat="42.41834" lon="0.12646">
        <ele>535.8</ele>
        <time>2017-07-02T12:29:31Z</time>
      </trkpt>
      <trkpt lat="42.4183" lon="0.12652">
        <ele>535.8</ele>
        <time>2017-07-02T12:29:32Z</time>
      </trkpt>
      <trkpt lat="42.41827" lon="0.12659">
        <ele>535.8</ele>
        <time>2017-07-02T12:29:33Z</time>
      </trkpt>
      <trkpt lat="42.41824" lon="0.12666">
        <ele>535.7</ele>
        <time>2017-07-02T12:29:34Z</time>
      </trkpt>
      <trkpt lat="42.4182" lon="0.12673">
        <ele>535.7</ele>
        <time>2017-07-02T12:29:35Z</time>
      </trkpt>
      <trkpt lat="42.41818" lon="0.12679">
        <ele>535.7</ele>
        <time>2017-07-02T12:29:36Z</time>
      </trkpt>
      <trkpt lat="42.41814" lon="0.12687">
        <ele>535.7</ele>
        <time>2017-07-02T12:29:37Z</time>
      </trkpt>
      <trkpt lat="42.41811" lon="0.12694">
        <ele>535.7</ele>
        <time>2017-07-02T12:29:38Z</time>
      </trkpt>
      <trkpt lat="42.41808" lon="0.12701">
        <ele>535.7</ele>
        <time>2017-07-02T12:29:39Z</time>
      </trkpt>
      <trkpt lat="42.41803" lon="0.12707">
        <ele>535.7</ele>
        <time>2017-07-02T12:29:40Z</time>
      </trkpt>
      <trkpt lat="42.41798" lon="0.12713">
        <ele>535.7</ele>
        <time>2017-07-02T12:29:41Z</time>
      </trkpt>
      <trkpt lat="42.41793" lon="0.12719">
        <ele>535.7</ele>
        <time>2017-07-02T12:29:42Z</time>
      </trkpt>
      <trkpt lat="42.41787" lon="0.12724">
        <ele>535.7</ele>
        <time>2017-07-02T12:29:43Z</time>
      </trkpt>
      <trkpt lat="42.41782" lon="0.12729">
        <ele>535.7</ele>
        <time>2017-07-02T12:29:44Z</time>
      </trkpt>
      <trkpt lat="42.41778" lon="0.12734">
        <ele>535.7</ele>
        <time>2017-07-02T12:29:45Z</time>
      </trkpt>
      <trkpt lat="42.41773" lon="0.12739">
        <ele>535.7</ele>
        <time>2017-07-02T12:29:46Z</time>
      </trkpt>
      <trkpt lat="42.41768" lon="0.12743">
        <ele>535.7</ele>
        <time>2017-07-02T12:29:47Z</time>
      </trkpt>
      <trkpt lat="42.41764" lon="0.12749">
        <ele>535.7</ele>
        <time>2017-07-02T12:29:48Z</time>
      </trkpt>
      <trkpt lat="42.41759" lon="0.12754">
        <ele>535.8</ele>
        <time>2017-07-02T12:29:49Z</time>
      </trkpt>
      <trkpt lat="42.41755" lon="0.1276">
        <ele>535.8</ele>
        <time>2017-07-02T12:29:50Z</time>
      </trkpt>
      <trkpt lat="42.4175" lon="0.12766">
        <ele>535.8</ele>
        <time>2017-07-02T12:29:51Z</time>
      </trkpt>
      <trkpt lat="42.41746" lon="0.12772">
        <ele>535.8</ele>
        <time>2017-07-02T12:29:52Z</time>
      </trkpt>
      <trkpt lat="42.41742" lon="0.12777">
        <ele>535.8</ele>
        <time>2017-07-02T12:29:53Z</time>
      </trkpt>
      <trkpt lat="42.41738" lon="0.12783">
        <ele>535.8</ele>
        <time>2017-07-02T12:29:54Z</time>
      </trkpt>
      <trkpt lat="42.41734" lon="0.12788">
        <ele>535.8</ele>
        <time>2017-07-02T12:29:55Z</time>
      </trkpt>
      <trkpt lat="42.41732" lon="0.12794">
        <ele>535.8</ele>
        <time>2017-07-02T12:29:56Z</time>
      </trkpt>
      <trkpt lat="42.4173" lon="0.12801">
        <ele>535.8</ele>
        <time>2017-07-02T12:29:57Z</time>
      </trkpt>
      <trkpt lat="42.41727" lon="0.12807">
        <ele>535.8</ele>
        <time>2017-07-02T12:29:58Z</time>
      </trkpt>
      <trkpt lat="42.41725" lon="0.12814">
        <ele>535.8</ele>
        <time>2017-07-02T12:29:59Z</time>
      </trkpt>
      <trkpt lat="42.41723" lon="0.12821">
        <ele>535.8</ele>
        <time>2017-07-02T12:30:00Z</time>
      </trkpt>
      <trkpt lat="42.41722" lon="0.12829">
        <ele>535.8</ele>
        <time>2017-07-02T12:30:01Z</time>
      </trkpt>
      <trkpt lat="42.4172" lon="0.12836">
        <ele>535.8</ele>
        <time>2017-07-02T12:30:02Z</time>
      </trkpt>
      <trkpt lat="42.41716" lon="0.12843">
        <ele>535.8</ele>
        <time>2017-07-02T12:30:03Z</time>
      </trkpt>
      <trkpt lat="42.41712" lon="0.12849">
        <ele>535.8</ele>
        <time>2017-07-02T12:30:04Z</time>
      </trkpt>
      <trkpt lat="42.4171" lon="0.12856">
        <ele>535.8</ele>
        <time>2017-07-02T12:30:05Z</time>
      </trkpt>
      <trkpt lat="42.41706" lon="0.12861">
        <ele>535.8</ele>
        <time>2017-07-02T12:30:06Z</time>
      </trkpt>
      <trkpt lat="42.41702" lon="0.12866">
        <ele>535.8</ele>
        <time>2017-07-02T12:30:07Z</time>
      </trkpt>
      <trkpt lat="42.41698" lon="0.12871">
        <ele>535.8</ele>
        <time>2017-07-02T12:30:08Z</time>
      </trkpt>
      <trkpt lat="42.41694" lon="0.12876">
        <ele>535.8</ele>
        <time>2017-07-02T12:30:09Z</time>
      </trkpt>
      <trkpt lat="42.41689" lon="0.12878">
        <ele>535.8</ele>
        <time>2017-07-02T12:30:10Z</time>
      </trkpt>
      <trkpt lat="42.41684" lon="0.12879">
        <ele>535.8</ele>
        <time>2017-07-02T12:30:11Z</time>
      </trkpt>
      <trkpt lat="42.41679" lon="0.12879">
        <ele>535.8</ele>
        <time>2017-07-02T12:30:12Z</time>
      </trkpt>
      <trkpt lat="42.41674" lon="0.12875">
        <ele>535.9</ele>
        <time>2017-07-02T12:30:13Z</time>
      </trkpt>
      <trkpt lat="42.41669" lon="0.12872">
        <ele>535.9</ele>
        <time>2017-07-02T12:30:14Z</time>
      </trkpt>
      <trkpt lat="42.41663" lon="0.1287">
        <ele>535.9</ele>
        <time>2017-07-02T12:30:15Z</time>
      </trkpt>
      <trkpt lat="42.41658" lon="0.12868">
        <ele>535.9</ele>
        <time>2017-07-02T12:30:16Z</time>
      </trkpt>
      <trkpt lat="42.41654" lon="0.12866">
        <ele>535.9</ele>
        <time>2017-07-02T12:30:17Z</time>
      </trkpt>
      <trkpt lat="42.41649" lon="0.12864">
        <ele>536</ele>
        <time>2017-07-02T12:30:18Z</time>
      </trkpt>
      <trkpt lat="42.41645" lon="0.12861">
        <ele>536</ele>
        <time>2017-07-02T12:30:19Z</time>
      </trkpt>
      <trkpt lat="42.4164" lon="0.1286">
        <ele>536</ele>
        <time>2017-07-02T12:30:20Z</time>
      </trkpt>
      <trkpt lat="42.41636" lon="0.12858">
        <ele>536</ele>
        <time>2017-07-02T12:30:21Z</time>
      </trkpt>
      <trkpt lat="42.41629" lon="0.12857">
        <ele>536.1</ele>
        <time>2017-07-02T12:30:22Z</time>
      </trkpt>
      <trkpt lat="42.41623" lon="0.12857">
        <ele>536.1</ele>
        <time>2017-07-02T12:30:23Z</time>
      </trkpt>
      <trkpt lat="42.41619" lon="0.12854">
        <ele>536.2</ele>
        <time>2017-07-02T12:30:24Z</time>
      </trkpt>
      <trkpt lat="42.41614" lon="0.12854">
        <ele>536.3</ele>
        <time>2017-07-02T12:30:25Z</time>
      </trkpt>
      <trkpt lat="42.41609" lon="0.12851">
        <ele>536.5</ele>
        <time>2017-07-02T12:30:26Z</time>
      </trkpt>
      <trkpt lat="42.41604" lon="0.1285">
        <ele>536.8</ele>
        <time>2017-07-02T12:30:27Z</time>
      </trkpt>
      <trkpt lat="42.41599" lon="0.12848">
        <ele>537.1</ele>
        <time>2017-07-02T12:30:28Z</time>
      </trkpt>
      <trkpt lat="42.41593" lon="0.12847">
        <ele>537.3</ele>
        <time>2017-07-02T12:30:29Z</time>
      </trkpt>
      <trkpt lat="42.41588" lon="0.12845">
        <ele>537.4</ele>
        <time>2017-07-02T12:30:30Z</time>
      </trkpt>
      <trkpt lat="42.41582" lon="0.12843">
        <ele>537.5</ele>
        <time>2017-07-02T12:30:31Z</time>
      </trkpt>
      <trkpt lat="42.41577" lon="0.12841">
        <ele>537.7</ele>
        <time>2017-07-02T12:30:32Z</time>
      </trkpt>
      <trkpt lat="42.41573" lon="0.12838">
        <ele>537.8</ele>
        <time>2017-07-02T12:30:33Z</time>
      </trkpt>
      <trkpt lat="42.41568" lon="0.12835">
        <ele>537.8</ele>
        <time>2017-07-02T12:30:34Z</time>
      </trkpt>
      <trkpt lat="42.41564" lon="0.12832">
        <ele>537.8</ele>
        <time>2017-07-02T12:30:35Z</time>
      </trkpt>
      <trkpt lat="42.41559" lon="0.12829">
        <ele>537.8</ele>
        <time>2017-07-02T12:30:36Z</time>
      </trkpt>
      <trkpt lat="42.41555" lon="0.12826">
        <ele>537.9</ele>
        <time>2017-07-02T12:30:37Z</time>
      </trkpt>
      <trkpt lat="42.41551" lon="0.12822">
        <ele>537.9</ele>
        <time>2017-07-02T12:30:38Z</time>
      </trkpt>
      <trkpt lat="42.41546" lon="0.12818">
        <ele>537.9</ele>
        <time>2017-07-02T12:30:39Z</time>
      </trkpt>
      <trkpt lat="42.41543" lon="0.12813">
        <ele>537.9</ele>
        <time>2017-07-02T12:30:40Z</time>
      </trkpt>
      <trkpt lat="42.41538" lon="0.1281">
        <ele>538</ele>
        <time>2017-07-02T12:30:41Z</time>
      </trkpt>
      <trkpt lat="42.41534" lon="0.12804">
        <ele>538</ele>
        <time>2017-07-02T12:30:42Z</time>
      </trkpt>
      <trkpt lat="42.41531" lon="0.128">
        <ele>538</ele>
        <time>2017-07-02T12:30:43Z</time>
      </trkpt>
      <trkpt lat="42.41527" lon="0.12795">
        <ele>538</ele>
        <time>2017-07-02T12:30:44Z</time>
      </trkpt>
      <trkpt lat="42.41524" lon="0.12791">
        <ele>538</ele>
        <time>2017-07-02T12:30:45Z</time>
      </trkpt>
      <trkpt lat="42.4152" lon="0.12787">
        <ele>538</ele>
        <time>2017-07-02T12:30:46Z</time>
      </trkpt>
      <trkpt lat="42.41514" lon="0.12785">
        <ele>538.1</ele>
        <time>2017-07-02T12:30:47Z</time>
      </trkpt>
      <trkpt lat="42.41509" lon="0.12785">
        <ele>538.1</ele>
        <time>2017-07-02T12:30:48Z</time>
      </trkpt>
      <trkpt lat="42.41504" lon="0.12787">
        <ele>538.2</ele>
        <time>2017-07-02T12:30:49Z</time>
      </trkpt>
      <trkpt lat="42.41499" lon="0.12788">
        <ele>538.3</ele>
        <time>2017-07-02T12:30:50Z</time>
      </trkpt>
      <trkpt lat="42.41493" lon="0.12788">
        <ele>538.4</ele>
        <time>2017-07-02T12:30:51Z</time>
      </trkpt>
      <trkpt lat="42.41488" lon="0.12787">
        <ele>538.6</ele>
        <time>2017-07-02T12:30:52Z</time>
      </trkpt>
      <trkpt lat="42.41483" lon="0.12787">
        <ele>538.9</ele>
        <time>2017-07-02T12:30:53Z</time>
      </trkpt>
      <trkpt lat="42.41478" lon="0.12786">
        <ele>539.1</ele>
        <time>2017-07-02T12:30:54Z</time>
      </trkpt>
      <trkpt lat="42.41473" lon="0.12785">
        <ele>539.3</ele>
        <time>2017-07-02T12:30:55Z</time>
      </trkpt>
      <trkpt lat="42.41468" lon="0.12783">
        <ele>539.6</ele>
        <time>2017-07-02T12:30:56Z</time>
      </trkpt>
      <trkpt lat="42.41463" lon="0.12783">
        <ele>539.8</ele>
        <time>2017-07-02T12:30:57Z</time>
      </trkpt>
      <trkpt lat="42.41458" lon="0.12781">
        <ele>539.9</ele>
        <time>2017-07-02T12:30:58Z</time>
      </trkpt>
      <trkpt lat="42.41453" lon="0.12778">
        <ele>540.1</ele>
        <time>2017-07-02T12:30:59Z</time>
      </trkpt>
      <trkpt lat="42.41449" lon="0.12775">
        <ele>540.4</ele>
        <time>2017-07-02T12:31:00Z</time>
      </trkpt>
      <trkpt lat="42.41446" lon="0.12771">
        <ele>540.6</ele>
        <time>2017-07-02T12:31:01Z</time>
      </trkpt>
      <trkpt lat="42.41444" lon="0.12766">
        <ele>540.8</ele>
        <time>2017-07-02T12:31:02Z</time>
      </trkpt>
      <trkpt lat="42.41441" lon="0.12762">
        <ele>541</ele>
        <time>2017-07-02T12:31:03Z</time>
      </trkpt>
      <trkpt lat="42.4144" lon="0.12757">
        <ele>541.2</ele>
        <time>2017-07-02T12:31:04Z</time>
      </trkpt>
      <trkpt lat="42.41438" lon="0.12753">
        <ele>541.3</ele>
        <time>2017-07-02T12:31:05Z</time>
      </trkpt>
      <trkpt lat="42.41436" lon="0.12746">
        <ele>541.4</ele>
        <time>2017-07-02T12:31:07Z</time>
      </trkpt>
      <trkpt lat="42.41435" lon="0.12741">
        <ele>541.5</ele>
        <time>2017-07-02T12:31:08Z</time>
      </trkpt>
      <trkpt lat="42.41434" lon="0.12737">
        <ele>541.5</ele>
        <time>2017-07-02T12:31:09Z</time>
      </trkpt>
      <trkpt lat="42.41433" lon="0.12734">
        <ele>541.6</ele>
        <time>2017-07-02T12:31:10Z</time>
      </trkpt>
      <trkpt lat="42.41432" lon="0.1273">
        <ele>541.7</ele>
        <time>2017-07-02T12:31:11Z</time>
      </trkpt>
      <trkpt lat="42.41432" lon="0.12725">
        <ele>541.7</ele>
        <time>2017-07-02T12:31:12Z</time>
      </trkpt>
      <trkpt lat="42.41431" lon="0.12719">
        <ele>541.8</ele>
        <time>2017-07-02T12:31:13Z</time>
      </trkpt>
      <trkpt lat="42.41429" lon="0.12714">
        <ele>541.9</ele>
        <time>2017-07-02T12:31:14Z</time>
      </trkpt>
      <trkpt lat="42.41428" lon="0.12708">
        <ele>541.9</ele>
        <time>2017-07-02T12:31:15Z</time>
      </trkpt>
      <trkpt lat="42.41426" lon="0.12701">
        <ele>541.9</ele>
        <time>2017-07-02T12:31:16Z</time>
      </trkpt>
      <trkpt lat="42.41424" lon="0.12696">
        <ele>541.9</ele>
        <time>2017-07-02T12:31:17Z</time>
      </trkpt>
      <trkpt lat="42.41422" lon="0.12691">
        <ele>542</ele>
        <time>2017-07-02T12:31:18Z</time>
      </trkpt>
      <trkpt lat="42.41422" lon="0.12684">
        <ele>542</ele>
        <time>2017-07-02T12:31:19Z</time>
      </trkpt>
      <trkpt lat="42.41422" lon="0.12676">
        <ele>542</ele>
        <time>2017-07-02T12:31:20Z</time>
      </trkpt>
      <trkpt lat="42.41422" lon="0.1267">
        <ele>541.9</ele>
        <time>2017-07-02T12:31:21Z</time>
      </trkpt>
      <trkpt lat="42.4142" lon="0.12664">
        <ele>541.9</ele>
        <time>2017-07-02T12:31:22Z</time>
      </trkpt>
      <trkpt lat="42.4142" lon="0.12659">
        <ele>541.8</ele>
        <time>2017-07-02T12:31:23Z</time>
      </trkpt>
      <trkpt lat="42.41418" lon="0.12654">
        <ele>541.8</ele>
        <time>2017-07-02T12:31:24Z</time>
      </trkpt>
      <trkpt lat="42.41417" lon="0.12648">
        <ele>541.7</ele>
        <time>2017-07-02T12:31:25Z</time>
      </trkpt>
      <trkpt lat="42.41416" lon="0.12643">
        <ele>541.6</ele>
        <time>2017-07-02T12:31:26Z</time>
      </trkpt>
      <trkpt lat="42.41414" lon="0.12637">
        <ele>541.5</ele>
        <time>2017-07-02T12:31:27Z</time>
      </trkpt>
      <trkpt lat="42.41412" lon="0.12633">
        <ele>541.4</ele>
        <time>2017-07-02T12:31:28Z</time>
      </trkpt>
      <trkpt lat="42.4141" lon="0.12629">
        <ele>541.3</ele>
        <time>2017-07-02T12:31:29Z</time>
      </trkpt>
      <trkpt lat="42.41407" lon="0.12627">
        <ele>541.2</ele>
        <time>2017-07-02T12:31:30Z</time>
      </trkpt>
      <trkpt lat="42.41405" lon="0.12625">
        <ele>541.2</ele>
        <time>2017-07-02T12:31:31Z</time>
      </trkpt>
      <trkpt lat="42.41402" lon="0.12624">
        <ele>541</ele>
        <time>2017-07-02T12:31:32Z</time>
      </trkpt>
      <trkpt lat="42.41399" lon="0.12624">
        <ele>541</ele>
        <time>2017-07-02T12:31:33Z</time>
      </trkpt>
      <trkpt lat="42.41396" lon="0.12625">
        <ele>541</ele>
        <time>2017-07-02T12:31:34Z</time>
      </trkpt>
      <trkpt lat="42.41394" lon="0.12627">
        <ele>541</ele>
        <time>2017-07-02T12:31:35Z</time>
      </trkpt>
      <trkpt lat="42.41391" lon="0.12632">
        <ele>540.9</ele>
        <time>2017-07-02T12:31:36Z</time>
      </trkpt>
      <trkpt lat="42.41389" lon="0.12636">
        <ele>540.7</ele>
        <time>2017-07-02T12:31:37Z</time>
      </trkpt>
      <trkpt lat="42.41386" lon="0.12641">
        <ele>540.7</ele>
        <time>2017-07-02T12:31:38Z</time>
      </trkpt>
      <trkpt lat="42.41384" lon="0.12646">
        <ele>540.6</ele>
        <time>2017-07-02T12:31:39Z</time>
      </trkpt>
      <trkpt lat="42.41381" lon="0.12652">
        <ele>540.6</ele>
        <time>2017-07-02T12:31:40Z</time>
      </trkpt>
      <trkpt lat="42.41378" lon="0.12659">
        <ele>540.8</ele>
        <time>2017-07-02T12:31:41Z</time>
      </trkpt>
      <trkpt lat="42.41375" lon="0.12663">
        <ele>541.1</ele>
        <time>2017-07-02T12:31:42Z</time>
      </trkpt>
      <trkpt lat="42.41372" lon="0.12668">
        <ele>541.5</ele>
        <time>2017-07-02T12:31:43Z</time>
      </trkpt>
      <trkpt lat="42.41369" lon="0.12673">
        <ele>541.9</ele>
        <time>2017-07-02T12:31:44Z</time>
      </trkpt>
      <trkpt lat="42.41366" lon="0.12677">
        <ele>542</ele>
        <time>2017-07-02T12:31:45Z</time>
      </trkpt>
      <trkpt lat="42.41364" lon="0.12682">
        <ele>542</ele>
        <time>2017-07-02T12:31:46Z</time>
      </trkpt>
      <trkpt lat="42.41363" lon="0.12688">
        <ele>542</ele>
        <time>2017-07-02T12:31:47Z</time>
      </trkpt>
      <trkpt lat="42.41364" lon="0.12694">
        <ele>542</ele>
        <time>2017-07-02T12:31:48Z</time>
      </trkpt>
      <trkpt lat="42.41366" lon="0.127">
        <ele>542</ele>
        <time>2017-07-02T12:31:49Z</time>
      </trkpt>
      <trkpt lat="42.41369" lon="0.12707">
        <ele>542</ele>
        <time>2017-07-02T12:31:50Z</time>
      </trkpt>
      <trkpt lat="42.41371" lon="0.12715">
        <ele>542</ele>
        <time>2017-07-02T12:31:51Z</time>
      </trkpt>
      <trkpt lat="42.41374" lon="0.12722">
        <ele>542</ele>
        <time>2017-07-02T12:31:52Z</time>
      </trkpt>
      <trkpt lat="42.41376" lon="0.1273">
        <ele>542</ele>
        <time>2017-07-02T12:31:53Z</time>
      </trkpt>
      <trkpt lat="42.41377" lon="0.1274">
        <ele>542</ele>
        <time>2017-07-02T12:31:54Z</time>
      </trkpt>
      <trkpt lat="42.41379" lon="0.12748">
        <ele>541.8</ele>
        <time>2017-07-02T12:31:55Z</time>
      </trkpt>
      <trkpt lat="42.41381" lon="0.12756">
        <ele>541.5</ele>
        <time>2017-07-02T12:31:56Z</time>
      </trkpt>
      <trkpt lat="42.41383" lon="0.12765">
        <ele>541.3</ele>
        <time>2017-07-02T12:31:57Z</time>
      </trkpt>
      <trkpt lat="42.41383" lon="0.12773">
        <ele>541.2</ele>
        <time>2017-07-02T12:31:58Z</time>
      </trkpt>
      <trkpt lat="42.41384" lon="0.12782">
        <ele>541.2</ele>
        <time>2017-07-02T12:31:59Z</time>
      </trkpt>
      <trkpt lat="42.41384" lon="0.12789">
        <ele>541.2</ele>
        <time>2017-07-02T12:32:00Z</time>
      </trkpt>
      <trkpt lat="42.41386" lon="0.12796">
        <ele>541.2</ele>
        <time>2017-07-02T12:32:01Z</time>
      </trkpt>
      <trkpt lat="42.41388" lon="0.12804">
        <ele>541.1</ele>
        <time>2017-07-02T12:32:02Z</time>
      </trkpt>
      <trkpt lat="42.41389" lon="0.12813">
        <ele>541.1</ele>
        <time>2017-07-02T12:32:03Z</time>
      </trkpt>
      <trkpt lat="42.4139" lon="0.12822">
        <ele>541.1</ele>
        <time>2017-07-02T12:32:04Z</time>
      </trkpt>
      <trkpt lat="42.41392" lon="0.1283">
        <ele>541.1</ele>
        <time>2017-07-02T12:32:05Z</time>
      </trkpt>
      <trkpt lat="42.41394" lon="0.12839">
        <ele>541.1</ele>
        <time>2017-07-02T12:32:06Z</time>
      </trkpt>
      <trkpt lat="42.41395" lon="0.12848">
        <ele>541.1</ele>
        <time>2017-07-02T12:32:07Z</time>
      </trkpt>
      <trkpt lat="42.41397" lon="0.12857">
        <ele>541.1</ele>
        <time>2017-07-02T12:32:08Z</time>
      </trkpt>
      <trkpt lat="42.41398" lon="0.12867">
        <ele>541</ele>
        <time>2017-07-02T12:32:09Z</time>
      </trkpt>
      <trkpt lat="42.414" lon="0.12877">
        <ele>541</ele>
        <time>2017-07-02T12:32:10Z</time>
      </trkpt>
      <trkpt lat="42.41402" lon="0.12884">
        <ele>540.9</ele>
        <time>2017-07-02T12:32:11Z</time>
      </trkpt>
      <trkpt lat="42.41403" lon="0.12894">
        <ele>540.6</ele>
        <time>2017-07-02T12:32:12Z</time>
      </trkpt>
      <trkpt lat="42.41404" lon="0.12903">
        <ele>540.4</ele>
        <time>2017-07-02T12:32:13Z</time>
      </trkpt>
      <trkpt lat="42.41405" lon="0.12912">
        <ele>540.2</ele>
        <time>2017-07-02T12:32:14Z</time>
      </trkpt>
      <trkpt lat="42.41408" lon="0.12921">
        <ele>540.1</ele>
        <time>2017-07-02T12:32:15Z</time>
      </trkpt>
      <trkpt lat="42.41409" lon="0.12929">
        <ele>540</ele>
        <time>2017-07-02T12:32:16Z</time>
      </trkpt>
      <trkpt lat="42.4141" lon="0.12939">
        <ele>540</ele>
        <time>2017-07-02T12:32:17Z</time>
      </trkpt>
      <trkpt lat="42.41412" lon="0.12948">
        <ele>540</ele>
        <time>2017-07-02T12:32:18Z</time>
      </trkpt>
      <trkpt lat="42.41414" lon="0.12957">
        <ele>539.9</ele>
        <time>2017-07-02T12:32:19Z</time>
      </trkpt>
      <trkpt lat="42.41416" lon="0.12966">
        <ele>539.8</ele>
        <time>2017-07-02T12:32:20Z</time>
      </trkpt>
      <trkpt lat="42.41417" lon="0.12975">
        <ele>539.8</ele>
        <time>2017-07-02T12:32:21Z</time>
      </trkpt>
      <trkpt lat="42.41419" lon="0.12983">
        <ele>539.7</ele>
        <time>2017-07-02T12:32:22Z</time>
      </trkpt>
      <trkpt lat="42.41421" lon="0.12992">
        <ele>539.7</ele>
        <time>2017-07-02T12:32:23Z</time>
      </trkpt>
      <trkpt lat="42.41423" lon="0.13001">
        <ele>539.6</ele>
        <time>2017-07-02T12:32:24Z</time>
      </trkpt>
      <trkpt lat="42.41425" lon="0.13009">
        <ele>539.6</ele>
        <time>2017-07-02T12:32:25Z</time>
      </trkpt>
      <trkpt lat="42.41426" lon="0.13018">
        <ele>539.5</ele>
        <time>2017-07-02T12:32:26Z</time>
      </trkpt>
      <trkpt lat="42.41428" lon="0.13028">
        <ele>539.3</ele>
        <time>2017-07-02T12:32:27Z</time>
      </trkpt>
      <trkpt lat="42.41429" lon="0.13036">
        <ele>539.1</ele>
        <time>2017-07-02T12:32:28Z</time>
      </trkpt>
      <trkpt lat="42.4143" lon="0.13046">
        <ele>539</ele>
        <time>2017-07-02T12:32:29Z</time>
      </trkpt>
      <trkpt lat="42.41431" lon="0.13053">
        <ele>539</ele>
        <time>2017-07-02T12:32:30Z</time>
      </trkpt>
      <trkpt lat="42.41433" lon="0.13062">
        <ele>539</ele>
        <time>2017-07-02T12:32:31Z</time>
      </trkpt>
      <trkpt lat="42.41434" lon="0.1307">
        <ele>538.9</ele>
        <time>2017-07-02T12:32:32Z</time>
      </trkpt>
      <trkpt lat="42.41436" lon="0.13077">
        <ele>538.9</ele>
        <time>2017-07-02T12:32:33Z</time>
      </trkpt>
      <trkpt lat="42.41437" lon="0.13086">
        <ele>538.9</ele>
        <time>2017-07-02T12:32:34Z</time>
      </trkpt>
      <trkpt lat="42.41439" lon="0.13094">
        <ele>538.9</ele>
        <time>2017-07-02T12:32:35Z</time>
      </trkpt>
      <trkpt lat="42.4144" lon="0.13102">
        <ele>538.9</ele>
        <time>2017-07-02T12:32:36Z</time>
      </trkpt>
      <trkpt lat="42.41442" lon="0.13109">
        <ele>538.9</ele>
        <time>2017-07-02T12:32:37Z</time>
      </trkpt>
      <trkpt lat="42.41444" lon="0.13119">
        <ele>538.9</ele>
        <time>2017-07-02T12:32:38Z</time>
      </trkpt>
      <trkpt lat="42.41445" lon="0.13126">
        <ele>538.9</ele>
        <time>2017-07-02T12:32:39Z</time>
      </trkpt>
      <trkpt lat="42.41447" lon="0.13134">
        <ele>538.9</ele>
        <time>2017-07-02T12:32:40Z</time>
      </trkpt>
      <trkpt lat="42.41448" lon="0.1314">
        <ele>538.9</ele>
        <time>2017-07-02T12:32:41Z</time>
      </trkpt>
      <trkpt lat="42.4145" lon="0.13147">
        <ele>538.9</ele>
        <time>2017-07-02T12:32:42Z</time>
      </trkpt>
      <trkpt lat="42.41452" lon="0.13154">
        <ele>538.9</ele>
        <time>2017-07-02T12:32:43Z</time>
      </trkpt>
      <trkpt lat="42.41454" lon="0.13162">
        <ele>538.9</ele>
        <time>2017-07-02T12:32:44Z</time>
      </trkpt>
      <trkpt lat="42.41456" lon="0.13169">
        <ele>539</ele>
        <time>2017-07-02T12:32:45Z</time>
      </trkpt>
      <trkpt lat="42.41457" lon="0.13176">
        <ele>539</ele>
        <time>2017-07-02T12:32:46Z</time>
      </trkpt>
      <trkpt lat="42.41458" lon="0.13183">
        <ele>539</ele>
        <time>2017-07-02T12:32:47Z</time>
      </trkpt>
      <trkpt lat="42.4146" lon="0.1319">
        <ele>539</ele>
        <time>2017-07-02T12:32:48Z</time>
      </trkpt>
      <trkpt lat="42.41461" lon="0.13197">
        <ele>539</ele>
        <time>2017-07-02T12:32:49Z</time>
      </trkpt>
      <trkpt lat="42.41462" lon="0.13205">
        <ele>539</ele>
        <time>2017-07-02T12:32:50Z</time>
      </trkpt>
      <trkpt lat="42.41464" lon="0.13213">
        <ele>539</ele>
        <time>2017-07-02T12:32:51Z</time>
      </trkpt>
      <trkpt lat="42.41465" lon="0.13221">
        <ele>539</ele>
        <time>2017-07-02T12:32:52Z</time>
      </trkpt>
      <trkpt lat="42.41466" lon="0.13229">
        <ele>539</ele>
        <time>2017-07-02T12:32:53Z</time>
      </trkpt>
      <trkpt lat="42.41467" lon="0.13238">
        <ele>539</ele>
        <time>2017-07-02T12:32:54Z</time>
      </trkpt>
      <trkpt lat="42.41468" lon="0.13245">
        <ele>539</ele>
        <time>2017-07-02T12:32:55Z</time>
      </trkpt>
      <trkpt lat="42.41468" lon="0.13254">
        <ele>539</ele>
        <time>2017-07-02T12:32:56Z</time>
      </trkpt>
      <trkpt lat="42.4147" lon="0.13261">
        <ele>538.9</ele>
        <time>2017-07-02T12:32:57Z</time>
      </trkpt>
      <trkpt lat="42.4147" lon="0.13268">
        <ele>538.9</ele>
        <time>2017-07-02T12:32:58Z</time>
      </trkpt>
      <trkpt lat="42.4147" lon="0.13276">
        <ele>538.9</ele>
        <time>2017-07-02T12:32:59Z</time>
      </trkpt>
      <trkpt lat="42.4147" lon="0.13284">
        <ele>538.8</ele>
        <time>2017-07-02T12:33:00Z</time>
      </trkpt>
      <trkpt lat="42.4147" lon="0.13293">
        <ele>538.7</ele>
        <time>2017-07-02T12:33:01Z</time>
      </trkpt>
      <trkpt lat="42.41469" lon="0.13301">
        <ele>538.5</ele>
        <time>2017-07-02T12:33:02Z</time>
      </trkpt>
      <trkpt lat="42.41467" lon="0.13309">
        <ele>538.3</ele>
        <time>2017-07-02T12:33:03Z</time>
      </trkpt>
      <trkpt lat="42.41466" lon="0.13316">
        <ele>538.2</ele>
        <time>2017-07-02T12:33:04Z</time>
      </trkpt>
      <trkpt lat="42.41465" lon="0.13324">
        <ele>538.2</ele>
        <time>2017-07-02T12:33:05Z</time>
      </trkpt>
      <trkpt lat="42.41464" lon="0.1333">
        <ele>538.2</ele>
        <time>2017-07-02T12:33:06Z</time>
      </trkpt>
      <trkpt lat="42.41462" lon="0.13337">
        <ele>538.2</ele>
        <time>2017-07-02T12:33:07Z</time>
      </trkpt>
      <trkpt lat="42.41461" lon="0.13343">
        <ele>538.2</ele>
        <time>2017-07-02T12:33:08Z</time>
      </trkpt>
      <trkpt lat="42.4146" lon="0.1335">
        <ele>538.2</ele>
        <time>2017-07-02T12:33:09Z</time>
      </trkpt>
      <trkpt lat="42.41458" lon="0.13356">
        <ele>538.2</ele>
        <time>2017-07-02T12:33:10Z</time>
      </trkpt>
      <trkpt lat="42.41458" lon="0.13363">
        <ele>538.2</ele>
        <time>2017-07-02T12:33:11Z</time>
      </trkpt>
      <trkpt lat="42.41456" lon="0.1337">
        <ele>538.2</ele>
        <time>2017-07-02T12:33:12Z</time>
      </trkpt>
      <trkpt lat="42.41454" lon="0.13377">
        <ele>538.2</ele>
        <time>2017-07-02T12:33:13Z</time>
      </trkpt>
      <trkpt lat="42.41452" lon="0.13384">
        <ele>538.2</ele>
        <time>2017-07-02T12:33:14Z</time>
      </trkpt>
      <trkpt lat="42.41451" lon="0.1339">
        <ele>538.2</ele>
        <time>2017-07-02T12:33:15Z</time>
      </trkpt>
      <trkpt lat="42.4145" lon="0.13397">
        <ele>538.2</ele>
        <time>2017-07-02T12:33:16Z</time>
      </trkpt>
      <trkpt lat="42.4145" lon="0.13404">
        <ele>538.2</ele>
        <time>2017-07-02T12:33:17Z</time>
      </trkpt>
      <trkpt lat="42.41449" lon="0.13411">
        <ele>538.3</ele>
        <time>2017-07-02T12:33:18Z</time>
      </trkpt>
      <trkpt lat="42.41447" lon="0.13419">
        <ele>538.3</ele>
        <time>2017-07-02T12:33:19Z</time>
      </trkpt>
      <trkpt lat="42.41445" lon="0.13426">
        <ele>538.3</ele>
        <time>2017-07-02T12:33:20Z</time>
      </trkpt>
      <trkpt lat="42.41443" lon="0.13434">
        <ele>538.3</ele>
        <time>2017-07-02T12:33:21Z</time>
      </trkpt>
      <trkpt lat="42.41441" lon="0.13441">
        <ele>538.3</ele>
        <time>2017-07-02T12:33:22Z</time>
      </trkpt>
      <trkpt lat="42.41439" lon="0.13449">
        <ele>538.3</ele>
        <time>2017-07-02T12:33:23Z</time>
      </trkpt>
      <trkpt lat="42.41436" lon="0.13457">
        <ele>538.4</ele>
        <time>2017-07-02T12:33:24Z</time>
      </trkpt>
      <trkpt lat="42.41434" lon="0.13465">
        <ele>538.4</ele>
        <time>2017-07-02T12:33:25Z</time>
      </trkpt>
      <trkpt lat="42.41431" lon="0.13473">
        <ele>538.4</ele>
        <time>2017-07-02T12:33:26Z</time>
      </trkpt>
      <trkpt lat="42.41428" lon="0.13481">
        <ele>538.4</ele>
        <time>2017-07-02T12:33:27Z</time>
      </trkpt>
      <trkpt lat="42.41425" lon="0.1349">
        <ele>538.4</ele>
        <time>2017-07-02T12:33:28Z</time>
      </trkpt>
      <trkpt lat="42.41423" lon="0.13497">
        <ele>538.4</ele>
        <time>2017-07-02T12:33:29Z</time>
      </trkpt>
      <trkpt lat="42.4142" lon="0.13504">
        <ele>538.5</ele>
        <time>2017-07-02T12:33:30Z</time>
      </trkpt>
      <trkpt lat="42.41417" lon="0.13511">
        <ele>538.5</ele>
        <time>2017-07-02T12:33:31Z</time>
      </trkpt>
      <trkpt lat="42.41415" lon="0.13518">
        <ele>538.5</ele>
        <time>2017-07-02T12:33:32Z</time>
      </trkpt>
      <trkpt lat="42.41412" lon="0.13525">
        <ele>538.5</ele>
        <time>2017-07-02T12:33:33Z</time>
      </trkpt>
      <trkpt lat="42.41409" lon="0.13533">
        <ele>538.5</ele>
        <time>2017-07-02T12:33:34Z</time>
      </trkpt>
      <trkpt lat="42.41406" lon="0.1354">
        <ele>538.6</ele>
        <time>2017-07-02T12:33:35Z</time>
      </trkpt>
      <trkpt lat="42.41403" lon="0.13547">
        <ele>538.6</ele>
        <time>2017-07-02T12:33:36Z</time>
      </trkpt>
      <trkpt lat="42.414" lon="0.13554">
        <ele>538.6</ele>
        <time>2017-07-02T12:33:37Z</time>
      </trkpt>
      <trkpt lat="42.41396" lon="0.1356">
        <ele>538.6</ele>
        <time>2017-07-02T12:33:38Z</time>
      </trkpt>
      <trkpt lat="42.41393" lon="0.13566">
        <ele>538.6</ele>
        <time>2017-07-02T12:33:39Z</time>
      </trkpt>
      <trkpt lat="42.41389" lon="0.13573">
        <ele>538.6</ele>
        <time>2017-07-02T12:33:40Z</time>
      </trkpt>
      <trkpt lat="42.41386" lon="0.13579">
        <ele>538.6</ele>
        <time>2017-07-02T12:33:41Z</time>
      </trkpt>
      <trkpt lat="42.41383" lon="0.13586">
        <ele>538.7</ele>
        <time>2017-07-02T12:33:42Z</time>
      </trkpt>
      <trkpt lat="42.41378" lon="0.13592">
        <ele>538.6</ele>
        <time>2017-07-02T12:33:43Z</time>
      </trkpt>
      <trkpt lat="42.41375" lon="0.13598">
        <ele>538.6</ele>
        <time>2017-07-02T12:33:44Z</time>
      </trkpt>
      <trkpt lat="42.41371" lon="0.13605">
        <ele>538.6</ele>
        <time>2017-07-02T12:33:45Z</time>
      </trkpt>
      <trkpt lat="42.41368" lon="0.13611">
        <ele>538.6</ele>
        <time>2017-07-02T12:33:46Z</time>
      </trkpt>
      <trkpt lat="42.41365" lon="0.13617">
        <ele>538.6</ele>
        <time>2017-07-02T12:33:47Z</time>
      </trkpt>
      <trkpt lat="42.41361" lon="0.13624">
        <ele>538.5</ele>
        <time>2017-07-02T12:33:48Z</time>
      </trkpt>
      <trkpt lat="42.41357" lon="0.13629">
        <ele>538.3</ele>
        <time>2017-07-02T12:33:49Z</time>
      </trkpt>
      <trkpt lat="42.41353" lon="0.13636">
        <ele>538.2</ele>
        <time>2017-07-02T12:33:50Z</time>
      </trkpt>
      <trkpt lat="42.4135" lon="0.13643">
        <ele>538</ele>
        <time>2017-07-02T12:33:51Z</time>
      </trkpt>
      <trkpt lat="42.41347" lon="0.1365">
        <ele>537.9</ele>
        <time>2017-07-02T12:33:52Z</time>
      </trkpt>
      <trkpt lat="42.41343" lon="0.13656">
        <ele>537.8</ele>
        <time>2017-07-02T12:33:53Z</time>
      </trkpt>
      <trkpt lat="42.4134" lon="0.13661">
        <ele>537.8</ele>
        <time>2017-07-02T12:33:54Z</time>
      </trkpt>
      <trkpt lat="42.41337" lon="0.13667">
        <ele>537.8</ele>
        <time>2017-07-02T12:33:55Z</time>
      </trkpt>
      <trkpt lat="42.41334" lon="0.13675">
        <ele>537.8</ele>
        <time>2017-07-02T12:33:56Z</time>
      </trkpt>
      <trkpt lat="42.4133" lon="0.13682">
        <ele>537.8</ele>
        <time>2017-07-02T12:33:57Z</time>
      </trkpt>
      <trkpt lat="42.41326" lon="0.1369">
        <ele>537.8</ele>
        <time>2017-07-02T12:33:58Z</time>
      </trkpt>
      <trkpt lat="42.41322" lon="0.13697">
        <ele>537.8</ele>
        <time>2017-07-02T12:33:59Z</time>
      </trkpt>
      <trkpt lat="42.41318" lon="0.13705">
        <ele>537.8</ele>
        <time>2017-07-02T12:34:00Z</time>
      </trkpt>
      <trkpt lat="42.41314" lon="0.13712">
        <ele>537.8</ele>
        <time>2017-07-02T12:34:01Z</time>
      </trkpt>
      <trkpt lat="42.4131" lon="0.13719">
        <ele>537.8</ele>
        <time>2017-07-02T12:34:02Z</time>
      </trkpt>
      <trkpt lat="42.41306" lon="0.13726">
        <ele>537.8</ele>
        <time>2017-07-02T12:34:03Z</time>
      </trkpt>
      <trkpt lat="42.41303" lon="0.13733">
        <ele>537.8</ele>
        <time>2017-07-02T12:34:04Z</time>
      </trkpt>
      <trkpt lat="42.413" lon="0.1374">
        <ele>537.8</ele>
        <time>2017-07-02T12:34:05Z</time>
      </trkpt>
      <trkpt lat="42.41297" lon="0.13746">
        <ele>537.8</ele>
        <time>2017-07-02T12:34:06Z</time>
      </trkpt>
      <trkpt lat="42.41295" lon="0.13753">
        <ele>537.8</ele>
        <time>2017-07-02T12:34:07Z</time>
      </trkpt>
      <trkpt lat="42.41293" lon="0.1376">
        <ele>537.8</ele>
        <time>2017-07-02T12:34:08Z</time>
      </trkpt>
      <trkpt lat="42.41291" lon="0.13766">
        <ele>537.8</ele>
        <time>2017-07-02T12:34:09Z</time>
      </trkpt>
      <trkpt lat="42.41289" lon="0.13772">
        <ele>537.8</ele>
        <time>2017-07-02T12:34:10Z</time>
      </trkpt>
      <trkpt lat="42.41288" lon="0.13778">
        <ele>537.8</ele>
        <time>2017-07-02T12:34:11Z</time>
      </trkpt>
      <trkpt lat="42.41286" lon="0.13785">
        <ele>537.8</ele>
        <time>2017-07-02T12:34:12Z</time>
      </trkpt>
      <trkpt lat="42.41284" lon="0.13791">
        <ele>537.8</ele>
        <time>2017-07-02T12:34:13Z</time>
      </trkpt>
      <trkpt lat="42.41282" lon="0.13798">
        <ele>537.8</ele>
        <time>2017-07-02T12:34:14Z</time>
      </trkpt>
      <trkpt lat="42.4128" lon="0.13805">
        <ele>537.7</ele>
        <time>2017-07-02T12:34:15Z</time>
      </trkpt>
      <trkpt lat="42.41279" lon="0.13812">
        <ele>537.7</ele>
        <time>2017-07-02T12:34:16Z</time>
      </trkpt>
      <trkpt lat="42.41277" lon="0.13819">
        <ele>537.6</ele>
        <time>2017-07-02T12:34:17Z</time>
      </trkpt>
      <trkpt lat="42.41275" lon="0.13826">
        <ele>537.6</ele>
        <time>2017-07-02T12:34:18Z</time>
      </trkpt>
      <trkpt lat="42.41274" lon="0.13834">
        <ele>537.5</ele>
        <time>2017-07-02T12:34:19Z</time>
      </trkpt>
      <trkpt lat="42.41273" lon="0.13842">
        <ele>537.4</ele>
        <time>2017-07-02T12:34:20Z</time>
      </trkpt>
      <trkpt lat="42.41272" lon="0.1385">
        <ele>537.2</ele>
        <time>2017-07-02T12:34:21Z</time>
      </trkpt>
      <trkpt lat="42.41272" lon="0.13857">
        <ele>537</ele>
        <time>2017-07-02T12:34:22Z</time>
      </trkpt>
      <trkpt lat="42.41272" lon="0.13864">
        <ele>537</ele>
        <time>2017-07-02T12:34:23Z</time>
      </trkpt>
      <trkpt lat="42.41272" lon="0.13872">
        <ele>536.9</ele>
        <time>2017-07-02T12:34:24Z</time>
      </trkpt>
      <trkpt lat="42.41272" lon="0.13879">
        <ele>536.9</ele>
        <time>2017-07-02T12:34:25Z</time>
      </trkpt>
      <trkpt lat="42.41272" lon="0.13887">
        <ele>536.9</ele>
        <time>2017-07-02T12:34:26Z</time>
      </trkpt>
      <trkpt lat="42.41273" lon="0.13894">
        <ele>536.8</ele>
        <time>2017-07-02T12:34:27Z</time>
      </trkpt>
      <trkpt lat="42.41273" lon="0.13901">
        <ele>536.8</ele>
        <time>2017-07-02T12:34:28Z</time>
      </trkpt>
      <trkpt lat="42.41273" lon="0.13909">
        <ele>536.8</ele>
        <time>2017-07-02T12:34:29Z</time>
      </trkpt>
      <trkpt lat="42.41273" lon="0.13916">
        <ele>536.8</ele>
        <time>2017-07-02T12:34:30Z</time>
      </trkpt>
      <trkpt lat="42.41273" lon="0.13923">
        <ele>536.8</ele>
        <time>2017-07-02T12:34:31Z</time>
      </trkpt>
      <trkpt lat="42.41272" lon="0.1393">
        <ele>536.8</ele>
        <time>2017-07-02T12:34:32Z</time>
      </trkpt>
      <trkpt lat="42.41271" lon="0.13937">
        <ele>536.8</ele>
        <time>2017-07-02T12:34:33Z</time>
      </trkpt>
      <trkpt lat="42.41269" lon="0.13944">
        <ele>536.8</ele>
        <time>2017-07-02T12:34:34Z</time>
      </trkpt>
      <trkpt lat="42.41268" lon="0.13949">
        <ele>536.8</ele>
        <time>2017-07-02T12:34:35Z</time>
      </trkpt>
      <trkpt lat="42.41266" lon="0.13954">
        <ele>536.8</ele>
        <time>2017-07-02T12:34:36Z</time>
      </trkpt>
      <trkpt lat="42.41262" lon="0.13959">
        <ele>536.8</ele>
        <time>2017-07-02T12:34:37Z</time>
      </trkpt>
      <trkpt lat="42.41259" lon="0.13962">
        <ele>536.8</ele>
        <time>2017-07-02T12:34:38Z</time>
      </trkpt>
      <trkpt lat="42.41256" lon="0.13965">
        <ele>536.9</ele>
        <time>2017-07-02T12:34:39Z</time>
      </trkpt>
      <trkpt lat="42.41253" lon="0.13967">
        <ele>536.9</ele>
        <time>2017-07-02T12:34:40Z</time>
      </trkpt>
      <trkpt lat="42.41249" lon="0.13968">
        <ele>536.9</ele>
        <time>2017-07-02T12:34:41Z</time>
      </trkpt>
      <trkpt lat="42.41246" lon="0.13969">
        <ele>537</ele>
        <time>2017-07-02T12:34:42Z</time>
      </trkpt>
      <trkpt lat="42.41242" lon="0.1397">
        <ele>537</ele>
        <time>2017-07-02T12:34:43Z</time>
      </trkpt>
      <trkpt lat="42.41239" lon="0.13971">
        <ele>537</ele>
        <time>2017-07-02T12:34:44Z</time>
      </trkpt>
      <trkpt lat="42.41236" lon="0.13973">
        <ele>537</ele>
        <time>2017-07-02T12:34:45Z</time>
      </trkpt>
      <trkpt lat="42.41234" lon="0.13975">
        <ele>537</ele>
        <time>2017-07-02T12:34:46Z</time>
      </trkpt>
      <trkpt lat="42.41231" lon="0.13977">
        <ele>537</ele>
        <time>2017-07-02T12:34:47Z</time>
      </trkpt>
      <trkpt lat="42.41228" lon="0.1398">
        <ele>537</ele>
        <time>2017-07-02T12:34:48Z</time>
      </trkpt>
      <trkpt lat="42.41225" lon="0.13982">
        <ele>537</ele>
        <time>2017-07-02T12:34:49Z</time>
      </trkpt>
      <trkpt lat="42.41222" lon="0.13984">
        <ele>537</ele>
        <time>2017-07-02T12:34:50Z</time>
      </trkpt>
      <trkpt lat="42.41219" lon="0.13985">
        <ele>537</ele>
        <time>2017-07-02T12:34:51Z</time>
      </trkpt>
      <trkpt lat="42.41216" lon="0.13986">
        <ele>537</ele>
        <time>2017-07-02T12:34:52Z</time>
      </trkpt>
      <trkpt lat="42.41214" lon="0.13988">
        <ele>537</ele>
        <time>2017-07-02T12:34:53Z</time>
      </trkpt>
      <trkpt lat="42.41212" lon="0.13991">
        <ele>537</ele>
        <time>2017-07-02T12:34:54Z</time>
      </trkpt>
      <trkpt lat="42.4121" lon="0.13994">
        <ele>537</ele>
        <time>2017-07-02T12:34:55Z</time>
      </trkpt>
      <trkpt lat="42.4121" lon="0.13998">
        <ele>537</ele>
        <time>2017-07-02T12:34:56Z</time>
      </trkpt>
      <trkpt lat="42.4121" lon="0.14003">
        <ele>537</ele>
        <time>2017-07-02T12:34:57Z</time>
      </trkpt>
      <trkpt lat="42.41212" lon="0.14009">
        <ele>537</ele>
        <time>2017-07-02T12:34:58Z</time>
      </trkpt>
      <trkpt lat="42.41214" lon="0.14016">
        <ele>537</ele>
        <time>2017-07-02T12:34:59Z</time>
      </trkpt>
      <trkpt lat="42.41218" lon="0.14022">
        <ele>537</ele>
        <time>2017-07-02T12:35:00Z</time>
      </trkpt>
      <trkpt lat="42.41222" lon="0.14028">
        <ele>537</ele>
        <time>2017-07-02T12:35:01Z</time>
      </trkpt>
      <trkpt lat="42.41226" lon="0.14033">
        <ele>537</ele>
        <time>2017-07-02T12:35:02Z</time>
      </trkpt>
      <trkpt lat="42.4123" lon="0.14037">
        <ele>537</ele>
        <time>2017-07-02T12:35:03Z</time>
      </trkpt>
      <trkpt lat="42.41234" lon="0.14041">
        <ele>537</ele>
        <time>2017-07-02T12:35:04Z</time>
      </trkpt>
      <trkpt lat="42.41237" lon="0.14045">
        <ele>537</ele>
        <time>2017-07-02T12:35:05Z</time>
      </trkpt>
      <trkpt lat="42.41241" lon="0.14048">
        <ele>536.1</ele>
        <time>2017-07-02T12:35:06Z</time>
      </trkpt>
      <trkpt lat="42.41245" lon="0.14049">
        <ele>534.7</ele>
        <time>2017-07-02T12:35:07Z</time>
      </trkpt>
      <trkpt lat="42.4125" lon="0.1405">
        <ele>533</ele>
        <time>2017-07-02T12:35:08Z</time>
      </trkpt>
      <trkpt lat="42.41255" lon="0.14049">
        <ele>533</ele>
        <time>2017-07-02T12:35:09Z</time>
      </trkpt>
      <trkpt lat="42.41261" lon="0.14049">
        <ele>533</ele>
        <time>2017-07-02T12:35:10Z</time>
      </trkpt>
      <trkpt lat="42.41266" lon="0.14049">
        <ele>533</ele>
        <time>2017-07-02T12:35:11Z</time>
      </trkpt>
      <trkpt lat="42.41272" lon="0.14049">
        <ele>532.8</ele>
        <time>2017-07-02T12:35:12Z</time>
      </trkpt>
      <trkpt lat="42.41277" lon="0.14048">
        <ele>532.5</ele>
        <time>2017-07-02T12:35:13Z</time>
      </trkpt>
      <trkpt lat="42.41283" lon="0.14047">
        <ele>532.2</ele>
        <time>2017-07-02T12:35:14Z</time>
      </trkpt>
      <trkpt lat="42.41288" lon="0.14046">
        <ele>531.9</ele>
        <time>2017-07-02T12:35:15Z</time>
      </trkpt>
      <trkpt lat="42.41294" lon="0.14046">
        <ele>531.5</ele>
        <time>2017-07-02T12:35:16Z</time>
      </trkpt>
      <trkpt lat="42.413" lon="0.14045">
        <ele>531.1</ele>
        <time>2017-07-02T12:35:17Z</time>
      </trkpt>
      <trkpt lat="42.41305" lon="0.14044">
        <ele>530.7</ele>
        <time>2017-07-02T12:35:18Z</time>
      </trkpt>
      <trkpt lat="42.41311" lon="0.14043">
        <ele>530.3</ele>
        <time>2017-07-02T12:35:19Z</time>
      </trkpt>
      <trkpt lat="42.41317" lon="0.14042">
        <ele>530</ele>
        <time>2017-07-02T12:35:20Z</time>
      </trkpt>
      <trkpt lat="42.41322" lon="0.14042">
        <ele>529.7</ele>
        <time>2017-07-02T12:35:21Z</time>
      </trkpt>
      <trkpt lat="42.41328" lon="0.14041">
        <ele>529.4</ele>
        <time>2017-07-02T12:35:22Z</time>
      </trkpt>
      <trkpt lat="42.41333" lon="0.1404">
        <ele>529.2</ele>
        <time>2017-07-02T12:35:23Z</time>
      </trkpt>
      <trkpt lat="42.41337" lon="0.14039">
        <ele>529.1</ele>
        <time>2017-07-02T12:35:24Z</time>
      </trkpt>
      <trkpt lat="42.41341" lon="0.14039">
        <ele>528.9</ele>
        <time>2017-07-02T12:35:25Z</time>
      </trkpt>
      <trkpt lat="42.41346" lon="0.14039">
        <ele>528.7</ele>
        <time>2017-07-02T12:35:26Z</time>
      </trkpt>
      <trkpt lat="42.41352" lon="0.14039">
        <ele>528.5</ele>
        <time>2017-07-02T12:35:27Z</time>
      </trkpt>
      <trkpt lat="42.41358" lon="0.14039">
        <ele>528.2</ele>
        <time>2017-07-02T12:35:28Z</time>
      </trkpt>
      <trkpt lat="42.41364" lon="0.14039">
        <ele>528</ele>
        <time>2017-07-02T12:35:29Z</time>
      </trkpt>
      <trkpt lat="42.41369" lon="0.14038">
        <ele>528</ele>
        <time>2017-07-02T12:35:30Z</time>
      </trkpt>
      <trkpt lat="42.41374" lon="0.14038">
        <ele>529</ele>
        <time>2017-07-02T12:35:31Z</time>
      </trkpt>
      <trkpt lat="42.41381" lon="0.14037">
        <ele>529.8</ele>
        <time>2017-07-02T12:35:32Z</time>
      </trkpt>
      <trkpt lat="42.41386" lon="0.14037">
        <ele>530.5</ele>
        <time>2017-07-02T12:35:33Z</time>
      </trkpt>
      <trkpt lat="42.41391" lon="0.14037">
        <ele>531.2</ele>
        <time>2017-07-02T12:35:34Z</time>
      </trkpt>
      <trkpt lat="42.41397" lon="0.14036">
        <ele>532</ele>
        <time>2017-07-02T12:35:35Z</time>
      </trkpt>
      <trkpt lat="42.41402" lon="0.14035">
        <ele>532.5</ele>
        <time>2017-07-02T12:35:36Z</time>
      </trkpt>
      <trkpt lat="42.41407" lon="0.14034">
        <ele>532.8</ele>
        <time>2017-07-02T12:35:37Z</time>
      </trkpt>
      <trkpt lat="42.41413" lon="0.14033">
        <ele>533.3</ele>
        <time>2017-07-02T12:35:38Z</time>
      </trkpt>
      <trkpt lat="42.41419" lon="0.14032">
        <ele>533.7</ele>
        <time>2017-07-02T12:35:39Z</time>
      </trkpt>
      <trkpt lat="42.41423" lon="0.14029">
        <ele>533.9</ele>
        <time>2017-07-02T12:35:40Z</time>
      </trkpt>
      <trkpt lat="42.41427" lon="0.14027">
        <ele>534</ele>
        <time>2017-07-02T12:35:41Z</time>
      </trkpt>
      <trkpt lat="42.41432" lon="0.14027">
        <ele>534</ele>
        <time>2017-07-02T12:35:42Z</time>
      </trkpt>
      <trkpt lat="42.41437" lon="0.14027">
        <ele>534</ele>
        <time>2017-07-02T12:35:43Z</time>
      </trkpt>
      <trkpt lat="42.41442" lon="0.14027">
        <ele>534</ele>
        <time>2017-07-02T12:35:44Z</time>
      </trkpt>
      <trkpt lat="42.41446" lon="0.14027">
        <ele>534</ele>
        <time>2017-07-02T12:35:45Z</time>
      </trkpt>
      <trkpt lat="42.41449" lon="0.14028">
        <ele>534</ele>
        <time>2017-07-02T12:35:46Z</time>
      </trkpt>
      <trkpt lat="42.41453" lon="0.14028">
        <ele>534</ele>
        <time>2017-07-02T12:35:48Z</time>
      </trkpt>
      <trkpt lat="42.41456" lon="0.14031">
        <ele>534</ele>
        <time>2017-07-02T12:35:51Z</time>
      </trkpt>
      <trkpt lat="42.4146" lon="0.14036">
        <ele>534</ele>
        <time>2017-07-02T12:35:53Z</time>
      </trkpt>
      <trkpt lat="42.41462" lon="0.1404">
        <ele>534</ele>
        <time>2017-07-02T12:35:54Z</time>
      </trkpt>
      <trkpt lat="42.41463" lon="0.14045">
        <ele>534</ele>
        <time>2017-07-02T12:35:55Z</time>
      </trkpt>
      <trkpt lat="42.41464" lon="0.1405">
        <ele>534</ele>
        <time>2017-07-02T12:35:56Z</time>
      </trkpt>
      <trkpt lat="42.41465" lon="0.14055">
        <ele>534</ele>
        <time>2017-07-02T12:35:57Z</time>
      </trkpt>
      <trkpt lat="42.41465" lon="0.14061">
        <ele>534</ele>
        <time>2017-07-02T12:35:58Z</time>
      </trkpt>
      <trkpt lat="42.41466" lon="0.14067">
        <ele>534.1</ele>
        <time>2017-07-02T12:35:59Z</time>
      </trkpt>
      <trkpt lat="42.41467" lon="0.14073">
        <ele>534.2</ele>
        <time>2017-07-02T12:36:00Z</time>
      </trkpt>
      <trkpt lat="42.41468" lon="0.14078">
        <ele>534.3</ele>
        <time>2017-07-02T12:36:01Z</time>
      </trkpt>
      <trkpt lat="42.41468" lon="0.14084">
        <ele>534.4</ele>
        <time>2017-07-02T12:36:02Z</time>
      </trkpt>
      <trkpt lat="42.41469" lon="0.1409">
        <ele>534.5</ele>
        <time>2017-07-02T12:36:03Z</time>
      </trkpt>
      <trkpt lat="42.4147" lon="0.14096">
        <ele>534.6</ele>
        <time>2017-07-02T12:36:04Z</time>
      </trkpt>
      <trkpt lat="42.4147" lon="0.14101">
        <ele>534.7</ele>
        <time>2017-07-02T12:36:05Z</time>
      </trkpt>
      <trkpt lat="42.41471" lon="0.14107">
        <ele>534.8</ele>
        <time>2017-07-02T12:36:06Z</time>
      </trkpt>
      <trkpt lat="42.41471" lon="0.14113">
        <ele>535</ele>
        <time>2017-07-02T12:36:07Z</time>
      </trkpt>
      <trkpt lat="42.41472" lon="0.14118">
        <ele>535.1</ele>
        <time>2017-07-02T12:36:08Z</time>
      </trkpt>
      <trkpt lat="42.41473" lon="0.14124">
        <ele>535.2</ele>
        <time>2017-07-02T12:36:09Z</time>
      </trkpt>
      <trkpt lat="42.41473" lon="0.14129">
        <ele>535.4</ele>
        <time>2017-07-02T12:36:10Z</time>
      </trkpt>
      <trkpt lat="42.41474" lon="0.14134">
        <ele>535.5</ele>
        <time>2017-07-02T12:36:11Z</time>
      </trkpt>
      <trkpt lat="42.41475" lon="0.1414">
        <ele>535.6</ele>
        <time>2017-07-02T12:36:12Z</time>
      </trkpt>
      <trkpt lat="42.41476" lon="0.14147">
        <ele>535.7</ele>
        <time>2017-07-02T12:36:13Z</time>
      </trkpt>
      <trkpt lat="42.41478" lon="0.14154">
        <ele>535.9</ele>
        <time>2017-07-02T12:36:14Z</time>
      </trkpt>
      <trkpt lat="42.41478" lon="0.1416">
        <ele>536</ele>
        <time>2017-07-02T12:36:15Z</time>
      </trkpt>
      <trkpt lat="42.41479" lon="0.14167">
        <ele>536</ele>
        <time>2017-07-02T12:36:16Z</time>
      </trkpt>
      <trkpt lat="42.4148" lon="0.14173">
        <ele>535.7</ele>
        <time>2017-07-02T12:36:17Z</time>
      </trkpt>
      <trkpt lat="42.41482" lon="0.14179">
        <ele>535.4</ele>
        <time>2017-07-02T12:36:18Z</time>
      </trkpt>
      <trkpt lat="42.41483" lon="0.14185">
        <ele>535.1</ele>
        <time>2017-07-02T12:36:19Z</time>
      </trkpt>
      <trkpt lat="42.41483" lon="0.14192">
        <ele>534.8</ele>
        <time>2017-07-02T12:36:20Z</time>
      </trkpt>
      <trkpt lat="42.41484" lon="0.14199">
        <ele>534.5</ele>
        <time>2017-07-02T12:36:21Z</time>
      </trkpt>
      <trkpt lat="42.41485" lon="0.14205">
        <ele>534.2</ele>
        <time>2017-07-02T12:36:22Z</time>
      </trkpt>
      <trkpt lat="42.41486" lon="0.14211">
        <ele>533.9</ele>
        <time>2017-07-02T12:36:23Z</time>
      </trkpt>
      <trkpt lat="42.41487" lon="0.14217">
        <ele>533.6</ele>
        <time>2017-07-02T12:36:24Z</time>
      </trkpt>
      <trkpt lat="42.41488" lon="0.14223">
        <ele>533.3</ele>
        <time>2017-07-02T12:36:25Z</time>
      </trkpt>
      <trkpt lat="42.41489" lon="0.1423">
        <ele>533.1</ele>
        <time>2017-07-02T12:36:26Z</time>
      </trkpt>
      <trkpt lat="42.4149" lon="0.14236">
        <ele>532.8</ele>
        <time>2017-07-02T12:36:27Z</time>
      </trkpt>
      <trkpt lat="42.4149" lon="0.14242">
        <ele>532.6</ele>
        <time>2017-07-02T12:36:28Z</time>
      </trkpt>
      <trkpt lat="42.41491" lon="0.14248">
        <ele>532.3</ele>
        <time>2017-07-02T12:36:29Z</time>
      </trkpt>
      <trkpt lat="42.41492" lon="0.14254">
        <ele>532.1</ele>
        <time>2017-07-02T12:36:30Z</time>
      </trkpt>
      <trkpt lat="42.41493" lon="0.1426">
        <ele>531.8</ele>
        <time>2017-07-02T12:36:31Z</time>
      </trkpt>
      <trkpt lat="42.41494" lon="0.14266">
        <ele>531.6</ele>
        <time>2017-07-02T12:36:32Z</time>
      </trkpt>
      <trkpt lat="42.41495" lon="0.14272">
        <ele>531.4</ele>
        <time>2017-07-02T12:36:33Z</time>
      </trkpt>
      <trkpt lat="42.41496" lon="0.14278">
        <ele>531.1</ele>
        <time>2017-07-02T12:36:34Z</time>
      </trkpt>
      <trkpt lat="42.41497" lon="0.14284">
        <ele>530.8</ele>
        <time>2017-07-02T12:36:35Z</time>
      </trkpt>
      <trkpt lat="42.41498" lon="0.14289">
        <ele>530.4</ele>
        <time>2017-07-02T12:36:36Z</time>
      </trkpt>
      <trkpt lat="42.41498" lon="0.14295">
        <ele>530.1</ele>
        <time>2017-07-02T12:36:37Z</time>
      </trkpt>
      <trkpt lat="42.41499" lon="0.14301">
        <ele>529.7</ele>
        <time>2017-07-02T12:36:38Z</time>
      </trkpt>
      <trkpt lat="42.415" lon="0.14307">
        <ele>529.2</ele>
        <time>2017-07-02T12:36:39Z</time>
      </trkpt>
      <trkpt lat="42.41501" lon="0.14312">
        <ele>528.9</ele>
        <time>2017-07-02T12:36:40Z</time>
      </trkpt>
      <trkpt lat="42.41502" lon="0.14318">
        <ele>528.5</ele>
        <time>2017-07-02T12:36:41Z</time>
      </trkpt>
      <trkpt lat="42.41503" lon="0.14323">
        <ele>528.1</ele>
        <time>2017-07-02T12:36:42Z</time>
      </trkpt>
      <trkpt lat="42.41504" lon="0.14329">
        <ele>527.6</ele>
        <time>2017-07-02T12:36:43Z</time>
      </trkpt>
      <trkpt lat="42.41504" lon="0.14334">
        <ele>526.9</ele>
        <time>2017-07-02T12:36:44Z</time>
      </trkpt>
      <trkpt lat="42.41505" lon="0.1434">
        <ele>526.5</ele>
        <time>2017-07-02T12:36:45Z</time>
      </trkpt>
      <trkpt lat="42.41506" lon="0.14345">
        <ele>526.1</ele>
        <time>2017-07-02T12:36:46Z</time>
      </trkpt>
      <trkpt lat="42.41507" lon="0.1435">
        <ele>525.6</ele>
        <time>2017-07-02T12:36:47Z</time>
      </trkpt>
      <trkpt lat="42.41508" lon="0.14356">
        <ele>525.2</ele>
        <time>2017-07-02T12:36:48Z</time>
      </trkpt>
      <trkpt lat="42.41509" lon="0.14361">
        <ele>525</ele>
        <time>2017-07-02T12:36:49Z</time>
      </trkpt>
      <trkpt lat="42.4151" lon="0.14367">
        <ele>525</ele>
        <time>2017-07-02T12:36:50Z</time>
      </trkpt>
      <trkpt lat="42.41511" lon="0.14373">
        <ele>525</ele>
        <time>2017-07-02T12:36:51Z</time>
      </trkpt>
      <trkpt lat="42.41511" lon="0.14378">
        <ele>525</ele>
        <time>2017-07-02T12:36:52Z</time>
      </trkpt>
      <trkpt lat="42.41512" lon="0.14384">
        <ele>525</ele>
        <time>2017-07-02T12:36:53Z</time>
      </trkpt>
      <trkpt lat="42.41512" lon="0.14389">
        <ele>525</ele>
        <time>2017-07-02T12:36:54Z</time>
      </trkpt>
      <trkpt lat="42.41513" lon="0.14395">
        <ele>525</ele>
        <time>2017-07-02T12:36:55Z</time>
      </trkpt>
      <trkpt lat="42.41513" lon="0.144">
        <ele>525</ele>
        <time>2017-07-02T12:36:56Z</time>
      </trkpt>
      <trkpt lat="42.41512" lon="0.14406">
        <ele>525</ele>
        <time>2017-07-02T12:36:57Z</time>
      </trkpt>
      <trkpt lat="42.41512" lon="0.14411">
        <ele>526.1</ele>
        <time>2017-07-02T12:36:58Z</time>
      </trkpt>
      <trkpt lat="42.4151" lon="0.14416">
        <ele>528</ele>
        <time>2017-07-02T12:36:59Z</time>
      </trkpt>
      <trkpt lat="42.41509" lon="0.1442">
        <ele>530</ele>
        <time>2017-07-02T12:37:00Z</time>
      </trkpt>
      <trkpt lat="42.41507" lon="0.14425">
        <ele>530</ele>
        <time>2017-07-02T12:37:01Z</time>
      </trkpt>
      <trkpt lat="42.41505" lon="0.14429">
        <ele>530</ele>
        <time>2017-07-02T12:37:02Z</time>
      </trkpt>
      <trkpt lat="42.41503" lon="0.14433">
        <ele>530</ele>
        <time>2017-07-02T12:37:03Z</time>
      </trkpt>
      <trkpt lat="42.41501" lon="0.14436">
        <ele>530</ele>
        <time>2017-07-02T12:37:04Z</time>
      </trkpt>
      <trkpt lat="42.41499" lon="0.14438">
        <ele>530</ele>
        <time>2017-07-02T12:37:05Z</time>
      </trkpt>
      <trkpt lat="42.41496" lon="0.14438">
        <ele>530</ele>
        <time>2017-07-02T12:37:06Z</time>
      </trkpt>
      <trkpt lat="42.41492" lon="0.14436">
        <ele>530</ele>
        <time>2017-07-02T12:37:07Z</time>
      </trkpt>
      <trkpt lat="42.4149" lon="0.14433">
        <ele>530</ele>
        <time>2017-07-02T12:37:08Z</time>
      </trkpt>
      <trkpt lat="42.41489" lon="0.14428">
        <ele>530</ele>
        <time>2017-07-02T12:37:09Z</time>
      </trkpt>
      <trkpt lat="42.41489" lon="0.14424">
        <ele>530</ele>
        <time>2017-07-02T12:37:10Z</time>
      </trkpt>
      <trkpt lat="42.41491" lon="0.1442">
        <ele>530</ele>
        <time>2017-07-02T12:37:11Z</time>
      </trkpt>
      <trkpt lat="42.41494" lon="0.14418">
        <ele>530</ele>
        <time>2017-07-02T12:37:12Z</time>
      </trkpt>
      <trkpt lat="42.41498" lon="0.14416">
        <ele>530</ele>
        <time>2017-07-02T12:37:14Z</time>
      </trkpt>
      <trkpt lat="42.41501" lon="0.14414">
        <ele>530</ele>
        <time>2017-07-02T12:37:16Z</time>
      </trkpt>
    </trkseg>
  </trk>
  <trk>
    <name><![CDATA[Zona zéro 10 et variante18]]></name>
    <extensions>
      <line xmlns="http://www.topografix.com/GPX/gpx_style/0/2">
        <color>880000</color>
        <width>4</width>
      </line>
    </extensions>
    <trkseg>
      <trkpt lat="42.44342" lon="0.06576">
        <ele>601.7</ele>
        <time>2016-07-31T07:35:15Z</time>
      </trkpt>
      <trkpt lat="42.44335" lon="0.0657">
        <ele>602.6</ele>
        <time>2016-07-31T07:38:06Z</time>
      </trkpt>
      <trkpt lat="42.44333" lon="0.06574">
        <ele>602.5</ele>
        <time>2016-07-31T07:38:28Z</time>
      </trkpt>
      <trkpt lat="42.44329" lon="0.06574">
        <ele>602.8</ele>
        <time>2016-07-31T07:38:45Z</time>
      </trkpt>
      <trkpt lat="42.44328" lon="0.06568">
        <ele>603.3</ele>
        <time>2016-07-31T07:39:48Z</time>
      </trkpt>
      <trkpt lat="42.44329" lon="0.06563">
        <ele>603.6</ele>
        <time>2016-07-31T07:39:50Z</time>
      </trkpt>
      <trkpt lat="42.4433" lon="0.06558">
        <ele>603.9</ele>
        <time>2016-07-31T07:39:52Z</time>
      </trkpt>
      <trkpt lat="42.44333" lon="0.06554">
        <ele>604.1</ele>
        <time>2016-07-31T07:39:54Z</time>
      </trkpt>
      <trkpt lat="42.44337" lon="0.0655">
        <ele>604.2</ele>
        <time>2016-07-31T07:39:56Z</time>
      </trkpt>
      <trkpt lat="42.44339" lon="0.06548">
        <ele>604.1</ele>
        <time>2016-07-31T07:39:57Z</time>
      </trkpt>
      <trkpt lat="42.44342" lon="0.06547">
        <ele>603.9</ele>
        <time>2016-07-31T07:39:58Z</time>
      </trkpt>
      <trkpt lat="42.44347" lon="0.06546">
        <ele>603.7</ele>
        <time>2016-07-31T07:40:00Z</time>
      </trkpt>
      <trkpt lat="42.4435" lon="0.06545">
        <ele>603.6</ele>
        <time>2016-07-31T07:40:01Z</time>
      </trkpt>
      <trkpt lat="42.44353" lon="0.06543">
        <ele>603.5</ele>
        <time>2016-07-31T07:40:02Z</time>
      </trkpt>
      <trkpt lat="42.44357" lon="0.06541">
        <ele>603.4</ele>
        <time>2016-07-31T07:40:04Z</time>
      </trkpt>
      <trkpt lat="42.44361" lon="0.06538">
        <ele>603.5</ele>
        <time>2016-07-31T07:40:06Z</time>
      </trkpt>
      <trkpt lat="42.44365" lon="0.06536">
        <ele>603.7</ele>
        <time>2016-07-31T07:40:08Z</time>
      </trkpt>
      <trkpt lat="42.44365" lon="0.06531">
        <ele>604.4</ele>
        <time>2016-07-31T07:40:11Z</time>
      </trkpt>
      <trkpt lat="42.44362" lon="0.06528">
        <ele>604.9</ele>
        <time>2016-07-31T07:40:13Z</time>
      </trkpt>
      <trkpt lat="42.4436" lon="0.06526">
        <ele>605.4</ele>
        <time>2016-07-31T07:40:16Z</time>
      </trkpt>
      <trkpt lat="42.44363" lon="0.06524">
        <ele>605.5</ele>
        <time>2016-07-31T07:40:37Z</time>
      </trkpt>
      <trkpt lat="42.44369" lon="0.06528">
        <ele>604.6</ele>
        <time>2016-07-31T07:40:39Z</time>
      </trkpt>
      <trkpt lat="42.44372" lon="0.06531">
        <ele>603.9</ele>
        <time>2016-07-31T07:40:40Z</time>
      </trkpt>
      <trkpt lat="42.44375" lon="0.06534">
        <ele>603.1</ele>
        <time>2016-07-31T07:40:41Z</time>
      </trkpt>
      <trkpt lat="42.44379" lon="0.06538">
        <ele>602.2</ele>
        <time>2016-07-31T07:40:42Z</time>
      </trkpt>
      <trkpt lat="42.44383" lon="0.06541">
        <ele>601.4</ele>
        <time>2016-07-31T07:40:43Z</time>
      </trkpt>
      <trkpt lat="42.44385" lon="0.06543">
        <ele>600.8</ele>
        <time>2016-07-31T07:40:44Z</time>
      </trkpt>
      <trkpt lat="42.44389" lon="0.06546">
        <ele>600.1</ele>
        <time>2016-07-31T07:40:46Z</time>
      </trkpt>
      <trkpt lat="42.44393" lon="0.0655">
        <ele>599.6</ele>
        <time>2016-07-31T07:40:48Z</time>
      </trkpt>
      <trkpt lat="42.44396" lon="0.06556">
        <ele>598.9</ele>
        <time>2016-07-31T07:40:50Z</time>
      </trkpt>
      <trkpt lat="42.44398" lon="0.06559">
        <ele>598.5</ele>
        <time>2016-07-31T07:40:51Z</time>
      </trkpt>
      <trkpt lat="42.44399" lon="0.06563">
        <ele>598.1</ele>
        <time>2016-07-31T07:40:52Z</time>
      </trkpt>
      <trkpt lat="42.44401" lon="0.06566">
        <ele>597.7</ele>
        <time>2016-07-31T07:40:53Z</time>
      </trkpt>
      <trkpt lat="42.44403" lon="0.0657">
        <ele>597.3</ele>
        <time>2016-07-31T07:40:54Z</time>
      </trkpt>
      <trkpt lat="42.44405" lon="0.06573">
        <ele>596.9</ele>
        <time>2016-07-31T07:40:55Z</time>
      </trkpt>
      <trkpt lat="42.44407" lon="0.06577">
        <ele>596.5</ele>
        <time>2016-07-31T07:40:56Z</time>
      </trkpt>
      <trkpt lat="42.44409" lon="0.0658">
        <ele>596.2</ele>
        <time>2016-07-31T07:40:57Z</time>
      </trkpt>
      <trkpt lat="42.4441" lon="0.06584">
        <ele>595.8</ele>
        <time>2016-07-31T07:40:58Z</time>
      </trkpt>
      <trkpt lat="42.44412" lon="0.06588">
        <ele>595.4</ele>
        <time>2016-07-31T07:40:59Z</time>
      </trkpt>
      <trkpt lat="42.44414" lon="0.06591">
        <ele>595.1</ele>
        <time>2016-07-31T07:41:00Z</time>
      </trkpt>
      <trkpt lat="42.44416" lon="0.06595">
        <ele>594.7</ele>
        <time>2016-07-31T07:41:01Z</time>
      </trkpt>
      <trkpt lat="42.44417" lon="0.06598">
        <ele>594.4</ele>
        <time>2016-07-31T07:41:02Z</time>
      </trkpt>
      <trkpt lat="42.44419" lon="0.06601">
        <ele>594.1</ele>
        <time>2016-07-31T07:41:03Z</time>
      </trkpt>
      <trkpt lat="42.44421" lon="0.06605">
        <ele>593.8</ele>
        <time>2016-07-31T07:41:04Z</time>
      </trkpt>
      <trkpt lat="42.44423" lon="0.06608">
        <ele>593.4</ele>
        <time>2016-07-31T07:41:05Z</time>
      </trkpt>
      <trkpt lat="42.44425" lon="0.06611">
        <ele>593.1</ele>
        <time>2016-07-31T07:41:06Z</time>
      </trkpt>
      <trkpt lat="42.44426" lon="0.06614">
        <ele>592.9</ele>
        <time>2016-07-31T07:41:07Z</time>
      </trkpt>
      <trkpt lat="42.44429" lon="0.0662">
        <ele>592.4</ele>
        <time>2016-07-31T07:41:09Z</time>
      </trkpt>
      <trkpt lat="42.44431" lon="0.06624">
        <ele>592</ele>
        <time>2016-07-31T07:41:11Z</time>
      </trkpt>
      <trkpt lat="42.44434" lon="0.06627">
        <ele>591.8</ele>
        <time>2016-07-31T07:41:13Z</time>
      </trkpt>
      <trkpt lat="42.44437" lon="0.06626">
        <ele>591.5</ele>
        <time>2016-07-31T07:41:19Z</time>
      </trkpt>
      <trkpt lat="42.4444" lon="0.06627">
        <ele>591.4</ele>
        <time>2016-07-31T07:41:21Z</time>
      </trkpt>
      <trkpt lat="42.44437" lon="0.06627">
        <ele>591.6</ele>
        <time>2016-07-31T07:41:31Z</time>
      </trkpt>
      <trkpt lat="42.44438" lon="0.06623">
        <ele>591.5</ele>
        <time>2016-07-31T07:41:58Z</time>
      </trkpt>
      <trkpt lat="42.44441" lon="0.06624">
        <ele>591.3</ele>
        <time>2016-07-31T07:42:01Z</time>
      </trkpt>
      <trkpt lat="42.44444" lon="0.06626">
        <ele>591.1</ele>
        <time>2016-07-31T07:42:03Z</time>
      </trkpt>
      <trkpt lat="42.44446" lon="0.06628">
        <ele>591</ele>
        <time>2016-07-31T07:42:05Z</time>
      </trkpt>
      <trkpt lat="42.4445" lon="0.06631">
        <ele>590.8</ele>
        <time>2016-07-31T07:42:07Z</time>
      </trkpt>
      <trkpt lat="42.44455" lon="0.06627">
        <ele>590.4</ele>
        <time>2016-07-31T07:42:09Z</time>
      </trkpt>
      <trkpt lat="42.44457" lon="0.06624">
        <ele>590.2</ele>
        <time>2016-07-31T07:42:10Z</time>
      </trkpt>
      <trkpt lat="42.44459" lon="0.0662">
        <ele>590.3</ele>
        <time>2016-07-31T07:42:11Z</time>
      </trkpt>
      <trkpt lat="42.44462" lon="0.06616">
        <ele>590.9</ele>
        <time>2016-07-31T07:42:12Z</time>
      </trkpt>
      <trkpt lat="42.44464" lon="0.06611">
        <ele>591.4</ele>
        <time>2016-07-31T07:42:13Z</time>
      </trkpt>
      <trkpt lat="42.44467" lon="0.06606">
        <ele>591.9</ele>
        <time>2016-07-31T07:42:14Z</time>
      </trkpt>
      <trkpt lat="42.44469" lon="0.06599">
        <ele>592.3</ele>
        <time>2016-07-31T07:42:15Z</time>
      </trkpt>
      <trkpt lat="42.44472" lon="0.06594">
        <ele>592.7</ele>
        <time>2016-07-31T07:42:16Z</time>
      </trkpt>
      <trkpt lat="42.44476" lon="0.06589">
        <ele>593.1</ele>
        <time>2016-07-31T07:42:17Z</time>
      </trkpt>
      <trkpt lat="42.44479" lon="0.06584">
        <ele>593.4</ele>
        <time>2016-07-31T07:42:18Z</time>
      </trkpt>
      <trkpt lat="42.44482" lon="0.06579">
        <ele>593.5</ele>
        <time>2016-07-31T07:42:19Z</time>
      </trkpt>
      <trkpt lat="42.44485" lon="0.06573">
        <ele>593.6</ele>
        <time>2016-07-31T07:42:20Z</time>
      </trkpt>
      <trkpt lat="42.44489" lon="0.06567">
        <ele>593.6</ele>
        <time>2016-07-31T07:42:21Z</time>
      </trkpt>
      <trkpt lat="42.44493" lon="0.06562">
        <ele>593.5</ele>
        <time>2016-07-31T07:42:22Z</time>
      </trkpt>
      <trkpt lat="42.44496" lon="0.06556">
        <ele>593.4</ele>
        <time>2016-07-31T07:42:23Z</time>
      </trkpt>
      <trkpt lat="42.445" lon="0.06551">
        <ele>593.1</ele>
        <time>2016-07-31T07:42:24Z</time>
      </trkpt>
      <trkpt lat="42.44504" lon="0.06545">
        <ele>592.7</ele>
        <time>2016-07-31T07:42:25Z</time>
      </trkpt>
      <trkpt lat="42.44507" lon="0.06539">
        <ele>592.5</ele>
        <time>2016-07-31T07:42:26Z</time>
      </trkpt>
      <trkpt lat="42.44511" lon="0.06533">
        <ele>592.7</ele>
        <time>2016-07-31T07:42:27Z</time>
      </trkpt>
      <trkpt lat="42.44515" lon="0.06528">
        <ele>592.9</ele>
        <time>2016-07-31T07:42:28Z</time>
      </trkpt>
      <trkpt lat="42.44519" lon="0.06522">
        <ele>593</ele>
        <time>2016-07-31T07:42:29Z</time>
      </trkpt>
      <trkpt lat="42.44523" lon="0.06516">
        <ele>593.1</ele>
        <time>2016-07-31T07:42:30Z</time>
      </trkpt>
      <trkpt lat="42.44526" lon="0.0651">
        <ele>593.2</ele>
        <time>2016-07-31T07:42:31Z</time>
      </trkpt>
      <trkpt lat="42.4453" lon="0.06504">
        <ele>593.3</ele>
        <time>2016-07-31T07:42:32Z</time>
      </trkpt>
      <trkpt lat="42.44534" lon="0.06499">
        <ele>593.3</ele>
        <time>2016-07-31T07:42:33Z</time>
      </trkpt>
      <trkpt lat="42.44538" lon="0.06493">
        <ele>593.3</ele>
        <time>2016-07-31T07:42:34Z</time>
      </trkpt>
      <trkpt lat="42.44542" lon="0.06487">
        <ele>593.3</ele>
        <time>2016-07-31T07:42:35Z</time>
      </trkpt>
      <trkpt lat="42.44546" lon="0.06481">
        <ele>593.5</ele>
        <time>2016-07-31T07:42:36Z</time>
      </trkpt>
      <trkpt lat="42.44549" lon="0.06476">
        <ele>593.6</ele>
        <time>2016-07-31T07:42:37Z</time>
      </trkpt>
      <trkpt lat="42.44553" lon="0.0647">
        <ele>593.7</ele>
        <time>2016-07-31T07:42:38Z</time>
      </trkpt>
      <trkpt lat="42.44557" lon="0.06464">
        <ele>593.7</ele>
        <time>2016-07-31T07:42:39Z</time>
      </trkpt>
      <trkpt lat="42.4456" lon="0.06459">
        <ele>593.8</ele>
        <time>2016-07-31T07:42:40Z</time>
      </trkpt>
      <trkpt lat="42.44564" lon="0.06453">
        <ele>593.8</ele>
        <time>2016-07-31T07:42:41Z</time>
      </trkpt>
      <trkpt lat="42.44567" lon="0.06447">
        <ele>593.9</ele>
        <time>2016-07-31T07:42:42Z</time>
      </trkpt>
      <trkpt lat="42.44571" lon="0.06442">
        <ele>594</ele>
        <time>2016-07-31T07:42:43Z</time>
      </trkpt>
      <trkpt lat="42.44574" lon="0.06436">
        <ele>594</ele>
        <time>2016-07-31T07:42:44Z</time>
      </trkpt>
      <trkpt lat="42.44577" lon="0.06431">
        <ele>594</ele>
        <time>2016-07-31T07:42:45Z</time>
      </trkpt>
      <trkpt lat="42.44582" lon="0.06426">
        <ele>593.9</ele>
        <time>2016-07-31T07:42:46Z</time>
      </trkpt>
      <trkpt lat="42.44585" lon="0.0642">
        <ele>593.9</ele>
        <time>2016-07-31T07:42:47Z</time>
      </trkpt>
      <trkpt lat="42.44589" lon="0.06415">
        <ele>593.8</ele>
        <time>2016-07-31T07:42:48Z</time>
      </trkpt>
      <trkpt lat="42.44592" lon="0.06409">
        <ele>593.7</ele>
        <time>2016-07-31T07:42:49Z</time>
      </trkpt>
      <trkpt lat="42.44596" lon="0.06404">
        <ele>593.6</ele>
        <time>2016-07-31T07:42:50Z</time>
      </trkpt>
      <trkpt lat="42.446" lon="0.06398">
        <ele>593.5</ele>
        <time>2016-07-31T07:42:51Z</time>
      </trkpt>
      <trkpt lat="42.44603" lon="0.06393">
        <ele>593.3</ele>
        <time>2016-07-31T07:42:52Z</time>
      </trkpt>
      <trkpt lat="42.44606" lon="0.06388">
        <ele>593.1</ele>
        <time>2016-07-31T07:42:53Z</time>
      </trkpt>
      <trkpt lat="42.4461" lon="0.06383">
        <ele>593</ele>
        <time>2016-07-31T07:42:54Z</time>
      </trkpt>
      <trkpt lat="42.44613" lon="0.06377">
        <ele>592.7</ele>
        <time>2016-07-31T07:42:55Z</time>
      </trkpt>
      <trkpt lat="42.44616" lon="0.06372">
        <ele>592.6</ele>
        <time>2016-07-31T07:42:56Z</time>
      </trkpt>
      <trkpt lat="42.44619" lon="0.06367">
        <ele>592.6</ele>
        <time>2016-07-31T07:42:57Z</time>
      </trkpt>
      <trkpt lat="42.44622" lon="0.06362">
        <ele>592.5</ele>
        <time>2016-07-31T07:42:58Z</time>
      </trkpt>
      <trkpt lat="42.44626" lon="0.06357">
        <ele>592.5</ele>
        <time>2016-07-31T07:42:59Z</time>
      </trkpt>
      <trkpt lat="42.44629" lon="0.06351">
        <ele>592.8</ele>
        <time>2016-07-31T07:43:00Z</time>
      </trkpt>
      <trkpt lat="42.44633" lon="0.06346">
        <ele>593.1</ele>
        <time>2016-07-31T07:43:01Z</time>
      </trkpt>
      <trkpt lat="42.44636" lon="0.06341">
        <ele>593.4</ele>
        <time>2016-07-31T07:43:02Z</time>
      </trkpt>
      <trkpt lat="42.44639" lon="0.06336">
        <ele>593.7</ele>
        <time>2016-07-31T07:43:03Z</time>
      </trkpt>
      <trkpt lat="42.44642" lon="0.06331">
        <ele>594</ele>
        <time>2016-07-31T07:43:04Z</time>
      </trkpt>
      <trkpt lat="42.44646" lon="0.06326">
        <ele>594.3</ele>
        <time>2016-07-31T07:43:05Z</time>
      </trkpt>
      <trkpt lat="42.44649" lon="0.06321">
        <ele>594.5</ele>
        <time>2016-07-31T07:43:06Z</time>
      </trkpt>
      <trkpt lat="42.44652" lon="0.06316">
        <ele>594.8</ele>
        <time>2016-07-31T07:43:07Z</time>
      </trkpt>
      <trkpt lat="42.44655" lon="0.06311">
        <ele>595.1</ele>
        <time>2016-07-31T07:43:08Z</time>
      </trkpt>
      <trkpt lat="42.44658" lon="0.06306">
        <ele>595.3</ele>
        <time>2016-07-31T07:43:09Z</time>
      </trkpt>
      <trkpt lat="42.44662" lon="0.063">
        <ele>595.6</ele>
        <time>2016-07-31T07:43:10Z</time>
      </trkpt>
      <trkpt lat="42.44665" lon="0.06296">
        <ele>595.9</ele>
        <time>2016-07-31T07:43:11Z</time>
      </trkpt>
      <trkpt lat="42.44668" lon="0.06291">
        <ele>596.1</ele>
        <time>2016-07-31T07:43:12Z</time>
      </trkpt>
      <trkpt lat="42.44671" lon="0.06286">
        <ele>596.3</ele>
        <time>2016-07-31T07:43:13Z</time>
      </trkpt>
      <trkpt lat="42.44675" lon="0.06281">
        <ele>596.4</ele>
        <time>2016-07-31T07:43:14Z</time>
      </trkpt>
      <trkpt lat="42.44677" lon="0.06275">
        <ele>596.6</ele>
        <time>2016-07-31T07:43:15Z</time>
      </trkpt>
      <trkpt lat="42.44681" lon="0.0627">
        <ele>596.8</ele>
        <time>2016-07-31T07:43:16Z</time>
      </trkpt>
      <trkpt lat="42.44684" lon="0.06265">
        <ele>596.9</ele>
        <time>2016-07-31T07:43:17Z</time>
      </trkpt>
      <trkpt lat="42.44687" lon="0.0626">
        <ele>597.1</ele>
        <time>2016-07-31T07:43:18Z</time>
      </trkpt>
      <trkpt lat="42.4469" lon="0.06255">
        <ele>597.2</ele>
        <time>2016-07-31T07:43:19Z</time>
      </trkpt>
      <trkpt lat="42.44694" lon="0.0625">
        <ele>597.4</ele>
        <time>2016-07-31T07:43:20Z</time>
      </trkpt>
      <trkpt lat="42.44697" lon="0.06245">
        <ele>597.5</ele>
        <time>2016-07-31T07:43:21Z</time>
      </trkpt>
      <trkpt lat="42.447" lon="0.0624">
        <ele>597.6</ele>
        <time>2016-07-31T07:43:22Z</time>
      </trkpt>
      <trkpt lat="42.44703" lon="0.06235">
        <ele>597.8</ele>
        <time>2016-07-31T07:43:23Z</time>
      </trkpt>
      <trkpt lat="42.44706" lon="0.06231">
        <ele>597.9</ele>
        <time>2016-07-31T07:43:24Z</time>
      </trkpt>
      <trkpt lat="42.4471" lon="0.06226">
        <ele>598.1</ele>
        <time>2016-07-31T07:43:25Z</time>
      </trkpt>
      <trkpt lat="42.44713" lon="0.06221">
        <ele>598.2</ele>
        <time>2016-07-31T07:43:26Z</time>
      </trkpt>
      <trkpt lat="42.44716" lon="0.06216">
        <ele>598.4</ele>
        <time>2016-07-31T07:43:27Z</time>
      </trkpt>
      <trkpt lat="42.44719" lon="0.0621">
        <ele>598.5</ele>
        <time>2016-07-31T07:43:28Z</time>
      </trkpt>
      <trkpt lat="42.44722" lon="0.06205">
        <ele>598.7</ele>
        <time>2016-07-31T07:43:29Z</time>
      </trkpt>
      <trkpt lat="42.44725" lon="0.06199">
        <ele>598.9</ele>
        <time>2016-07-31T07:43:30Z</time>
      </trkpt>
      <trkpt lat="42.44728" lon="0.06195">
        <ele>599</ele>
        <time>2016-07-31T07:43:31Z</time>
      </trkpt>
      <trkpt lat="42.44732" lon="0.0619">
        <ele>599.2</ele>
        <time>2016-07-31T07:43:32Z</time>
      </trkpt>
      <trkpt lat="42.44735" lon="0.06185">
        <ele>599.4</ele>
        <time>2016-07-31T07:43:33Z</time>
      </trkpt>
      <trkpt lat="42.44738" lon="0.0618">
        <ele>599.5</ele>
        <time>2016-07-31T07:43:34Z</time>
      </trkpt>
      <trkpt lat="42.44741" lon="0.06175">
        <ele>599.7</ele>
        <time>2016-07-31T07:43:35Z</time>
      </trkpt>
      <trkpt lat="42.44744" lon="0.06169">
        <ele>599.8</ele>
        <time>2016-07-31T07:43:36Z</time>
      </trkpt>
      <trkpt lat="42.44748" lon="0.06164">
        <ele>599.9</ele>
        <time>2016-07-31T07:43:37Z</time>
      </trkpt>
      <trkpt lat="42.44751" lon="0.06158">
        <ele>600</ele>
        <time>2016-07-31T07:43:38Z</time>
      </trkpt>
      <trkpt lat="42.44755" lon="0.06153">
        <ele>600.2</ele>
        <time>2016-07-31T07:43:39Z</time>
      </trkpt>
      <trkpt lat="42.44758" lon="0.06147">
        <ele>600.2</ele>
        <time>2016-07-31T07:43:40Z</time>
      </trkpt>
      <trkpt lat="42.44762" lon="0.06141">
        <ele>600.3</ele>
        <time>2016-07-31T07:43:41Z</time>
      </trkpt>
      <trkpt lat="42.44765" lon="0.06137">
        <ele>600.4</ele>
        <time>2016-07-31T07:43:42Z</time>
      </trkpt>
      <trkpt lat="42.44769" lon="0.06131">
        <ele>600.5</ele>
        <time>2016-07-31T07:43:43Z</time>
      </trkpt>
      <trkpt lat="42.44772" lon="0.06124">
        <ele>600.5</ele>
        <time>2016-07-31T07:43:44Z</time>
      </trkpt>
      <trkpt lat="42.44775" lon="0.06119">
        <ele>600.7</ele>
        <time>2016-07-31T07:43:45Z</time>
      </trkpt>
      <trkpt lat="42.44779" lon="0.06115">
        <ele>600.8</ele>
        <time>2016-07-31T07:43:46Z</time>
      </trkpt>
      <trkpt lat="42.44782" lon="0.06109">
        <ele>601</ele>
        <time>2016-07-31T07:43:47Z</time>
      </trkpt>
      <trkpt lat="42.44786" lon="0.06102">
        <ele>601.1</ele>
        <time>2016-07-31T07:43:48Z</time>
      </trkpt>
      <trkpt lat="42.44789" lon="0.06097">
        <ele>601.3</ele>
        <time>2016-07-31T07:43:49Z</time>
      </trkpt>
      <trkpt lat="42.44792" lon="0.06092">
        <ele>601.4</ele>
        <time>2016-07-31T07:43:50Z</time>
      </trkpt>
      <trkpt lat="42.44795" lon="0.06087">
        <ele>601.5</ele>
        <time>2016-07-31T07:43:51Z</time>
      </trkpt>
      <trkpt lat="42.44799" lon="0.06082">
        <ele>601.7</ele>
        <time>2016-07-31T07:43:52Z</time>
      </trkpt>
      <trkpt lat="42.44802" lon="0.06076">
        <ele>601.8</ele>
        <time>2016-07-31T07:43:53Z</time>
      </trkpt>
      <trkpt lat="42.44806" lon="0.06071">
        <ele>601.9</ele>
        <time>2016-07-31T07:43:54Z</time>
      </trkpt>
      <trkpt lat="42.44809" lon="0.06066">
        <ele>602</ele>
        <time>2016-07-31T07:43:55Z</time>
      </trkpt>
      <trkpt lat="42.44813" lon="0.0606">
        <ele>602.1</ele>
        <time>2016-07-31T07:43:56Z</time>
      </trkpt>
      <trkpt lat="42.44816" lon="0.06054">
        <ele>602.2</ele>
        <time>2016-07-31T07:43:57Z</time>
      </trkpt>
      <trkpt lat="42.4482" lon="0.06049">
        <ele>602.3</ele>
        <time>2016-07-31T07:43:58Z</time>
      </trkpt>
      <trkpt lat="42.44823" lon="0.06044">
        <ele>602.4</ele>
        <time>2016-07-31T07:43:59Z</time>
      </trkpt>
      <trkpt lat="42.44827" lon="0.06038">
        <ele>602.3</ele>
        <time>2016-07-31T07:44:00Z</time>
      </trkpt>
      <trkpt lat="42.4483" lon="0.06033">
        <ele>602.2</ele>
        <time>2016-07-31T07:44:01Z</time>
      </trkpt>
      <trkpt lat="42.44834" lon="0.06028">
        <ele>602.1</ele>
        <time>2016-07-31T07:44:02Z</time>
      </trkpt>
      <trkpt lat="42.44837" lon="0.06022">
        <ele>601.9</ele>
        <time>2016-07-31T07:44:03Z</time>
      </trkpt>
      <trkpt lat="42.44841" lon="0.06016">
        <ele>601.8</ele>
        <time>2016-07-31T07:44:04Z</time>
      </trkpt>
      <trkpt lat="42.44845" lon="0.0601">
        <ele>601.6</ele>
        <time>2016-07-31T07:44:05Z</time>
      </trkpt>
      <trkpt lat="42.44848" lon="0.06005">
        <ele>601.5</ele>
        <time>2016-07-31T07:44:06Z</time>
      </trkpt>
      <trkpt lat="42.44852" lon="0.05998">
        <ele>601.3</ele>
        <time>2016-07-31T07:44:07Z</time>
      </trkpt>
      <trkpt lat="42.44855" lon="0.05993">
        <ele>601.1</ele>
        <time>2016-07-31T07:44:08Z</time>
      </trkpt>
      <trkpt lat="42.44858" lon="0.05987">
        <ele>601</ele>
        <time>2016-07-31T07:44:09Z</time>
      </trkpt>
      <trkpt lat="42.44862" lon="0.05982">
        <ele>600.8</ele>
        <time>2016-07-31T07:44:10Z</time>
      </trkpt>
      <trkpt lat="42.44866" lon="0.05976">
        <ele>600.6</ele>
        <time>2016-07-31T07:44:11Z</time>
      </trkpt>
      <trkpt lat="42.4487" lon="0.0597">
        <ele>600.4</ele>
        <time>2016-07-31T07:44:12Z</time>
      </trkpt>
      <trkpt lat="42.44873" lon="0.05965">
        <ele>600.2</ele>
        <time>2016-07-31T07:44:13Z</time>
      </trkpt>
      <trkpt lat="42.44878" lon="0.05959">
        <ele>600.2</ele>
        <time>2016-07-31T07:44:14Z</time>
      </trkpt>
      <trkpt lat="42.44881" lon="0.05954">
        <ele>600.3</ele>
        <time>2016-07-31T07:44:15Z</time>
      </trkpt>
      <trkpt lat="42.44885" lon="0.05948">
        <ele>600.4</ele>
        <time>2016-07-31T07:44:16Z</time>
      </trkpt>
      <trkpt lat="42.44889" lon="0.05942">
        <ele>600.6</ele>
        <time>2016-07-31T07:44:17Z</time>
      </trkpt>
      <trkpt lat="42.44893" lon="0.05937">
        <ele>600.7</ele>
        <time>2016-07-31T07:44:18Z</time>
      </trkpt>
      <trkpt lat="42.44896" lon="0.05929">
        <ele>600.7</ele>
        <time>2016-07-31T07:44:19Z</time>
      </trkpt>
      <trkpt lat="42.44899" lon="0.05925">
        <ele>600.8</ele>
        <time>2016-07-31T07:44:20Z</time>
      </trkpt>
      <trkpt lat="42.44903" lon="0.05919">
        <ele>600.9</ele>
        <time>2016-07-31T07:44:21Z</time>
      </trkpt>
      <trkpt lat="42.44907" lon="0.05914">
        <ele>601</ele>
        <time>2016-07-31T07:44:22Z</time>
      </trkpt>
      <trkpt lat="42.4491" lon="0.05909">
        <ele>601</ele>
        <time>2016-07-31T07:44:23Z</time>
      </trkpt>
      <trkpt lat="42.44914" lon="0.05904">
        <ele>601.1</ele>
        <time>2016-07-31T07:44:24Z</time>
      </trkpt>
      <trkpt lat="42.44919" lon="0.05897">
        <ele>601.1</ele>
        <time>2016-07-31T07:44:25Z</time>
      </trkpt>
      <trkpt lat="42.44922" lon="0.0589">
        <ele>601.1</ele>
        <time>2016-07-31T07:44:26Z</time>
      </trkpt>
      <trkpt lat="42.44925" lon="0.05885">
        <ele>601.1</ele>
        <time>2016-07-31T07:44:27Z</time>
      </trkpt>
      <trkpt lat="42.44929" lon="0.05881">
        <ele>601.1</ele>
        <time>2016-07-31T07:44:28Z</time>
      </trkpt>
      <trkpt lat="42.44933" lon="0.05876">
        <ele>601.1</ele>
        <time>2016-07-31T07:44:29Z</time>
      </trkpt>
      <trkpt lat="42.44936" lon="0.05871">
        <ele>601.1</ele>
        <time>2016-07-31T07:44:30Z</time>
      </trkpt>
      <trkpt lat="42.4494" lon="0.05866">
        <ele>601.2</ele>
        <time>2016-07-31T07:44:31Z</time>
      </trkpt>
      <trkpt lat="42.44943" lon="0.05861">
        <ele>601.2</ele>
        <time>2016-07-31T07:44:32Z</time>
      </trkpt>
      <trkpt lat="42.44945" lon="0.05856">
        <ele>601.1</ele>
        <time>2016-07-31T07:44:33Z</time>
      </trkpt>
      <trkpt lat="42.44948" lon="0.05851">
        <ele>601.1</ele>
        <time>2016-07-31T07:44:34Z</time>
      </trkpt>
      <trkpt lat="42.44952" lon="0.05845">
        <ele>601.1</ele>
        <time>2016-07-31T07:44:35Z</time>
      </trkpt>
      <trkpt lat="42.44956" lon="0.0584">
        <ele>601.1</ele>
        <time>2016-07-31T07:44:36Z</time>
      </trkpt>
      <trkpt lat="42.44961" lon="0.05833">
        <ele>601.4</ele>
        <time>2016-07-31T07:44:37Z</time>
      </trkpt>
      <trkpt lat="42.44965" lon="0.05827">
        <ele>601.7</ele>
        <time>2016-07-31T07:44:38Z</time>
      </trkpt>
      <trkpt lat="42.44969" lon="0.05821">
        <ele>602</ele>
        <time>2016-07-31T07:44:39Z</time>
      </trkpt>
      <trkpt lat="42.44972" lon="0.05816">
        <ele>602.2</ele>
        <time>2016-07-31T07:44:40Z</time>
      </trkpt>
      <trkpt lat="42.44976" lon="0.05812">
        <ele>602.5</ele>
        <time>2016-07-31T07:44:41Z</time>
      </trkpt>
      <trkpt lat="42.4498" lon="0.05806">
        <ele>602.6</ele>
        <time>2016-07-31T07:44:42Z</time>
      </trkpt>
      <trkpt lat="42.44984" lon="0.05802">
        <ele>602.8</ele>
        <time>2016-07-31T07:44:43Z</time>
      </trkpt>
      <trkpt lat="42.44989" lon="0.05798">
        <ele>602.9</ele>
        <time>2016-07-31T07:44:44Z</time>
      </trkpt>
      <trkpt lat="42.44992" lon="0.05793">
        <ele>602.9</ele>
        <time>2016-07-31T07:44:45Z</time>
      </trkpt>
      <trkpt lat="42.44996" lon="0.05785">
        <ele>603</ele>
        <time>2016-07-31T07:44:46Z</time>
      </trkpt>
      <trkpt lat="42.45" lon="0.0578">
        <ele>603.2</ele>
        <time>2016-07-31T07:44:47Z</time>
      </trkpt>
      <trkpt lat="42.45004" lon="0.05776">
        <ele>603.4</ele>
        <time>2016-07-31T07:44:48Z</time>
      </trkpt>
      <trkpt lat="42.45007" lon="0.05773">
        <ele>603.4</ele>
        <time>2016-07-31T07:44:49Z</time>
      </trkpt>
      <trkpt lat="42.45011" lon="0.05769">
        <ele>603.5</ele>
        <time>2016-07-31T07:44:50Z</time>
      </trkpt>
      <trkpt lat="42.45015" lon="0.05765">
        <ele>603.5</ele>
        <time>2016-07-31T07:44:51Z</time>
      </trkpt>
      <trkpt lat="42.45019" lon="0.05762">
        <ele>603.6</ele>
        <time>2016-07-31T07:44:52Z</time>
      </trkpt>
      <trkpt lat="42.45023" lon="0.05756">
        <ele>603.4</ele>
        <time>2016-07-31T07:44:53Z</time>
      </trkpt>
      <trkpt lat="42.45026" lon="0.0575">
        <ele>603.1</ele>
        <time>2016-07-31T07:44:54Z</time>
      </trkpt>
      <trkpt lat="42.45028" lon="0.05744">
        <ele>602.8</ele>
        <time>2016-07-31T07:44:55Z</time>
      </trkpt>
      <trkpt lat="42.45028" lon="0.05738">
        <ele>602.4</ele>
        <time>2016-07-31T07:44:56Z</time>
      </trkpt>
      <trkpt lat="42.45025" lon="0.05731">
        <ele>602</ele>
        <time>2016-07-31T07:44:57Z</time>
      </trkpt>
      <trkpt lat="42.45023" lon="0.05724">
        <ele>601.6</ele>
        <time>2016-07-31T07:44:58Z</time>
      </trkpt>
      <trkpt lat="42.45021" lon="0.05717">
        <ele>601.2</ele>
        <time>2016-07-31T07:44:59Z</time>
      </trkpt>
      <trkpt lat="42.45019" lon="0.0571">
        <ele>600.9</ele>
        <time>2016-07-31T07:45:00Z</time>
      </trkpt>
      <trkpt lat="42.45018" lon="0.05703">
        <ele>601.8</ele>
        <time>2016-07-31T07:45:01Z</time>
      </trkpt>
      <trkpt lat="42.45016" lon="0.05697">
        <ele>603.1</ele>
        <time>2016-07-31T07:45:02Z</time>
      </trkpt>
      <trkpt lat="42.45013" lon="0.0569">
        <ele>604.6</ele>
        <time>2016-07-31T07:45:03Z</time>
      </trkpt>
      <trkpt lat="42.45009" lon="0.05682">
        <ele>606.3</ele>
        <time>2016-07-31T07:45:04Z</time>
      </trkpt>
      <trkpt lat="42.45007" lon="0.05675">
        <ele>608</ele>
        <time>2016-07-31T07:45:05Z</time>
      </trkpt>
      <trkpt lat="42.45005" lon="0.05667">
        <ele>609.7</ele>
        <time>2016-07-31T07:45:06Z</time>
      </trkpt>
      <trkpt lat="42.45002" lon="0.0566">
        <ele>611.5</ele>
        <time>2016-07-31T07:45:07Z</time>
      </trkpt>
      <trkpt lat="42.44999" lon="0.05653">
        <ele>613.3</ele>
        <time>2016-07-31T07:45:08Z</time>
      </trkpt>
      <trkpt lat="42.44997" lon="0.05646">
        <ele>614.9</ele>
        <time>2016-07-31T07:45:09Z</time>
      </trkpt>
      <trkpt lat="42.44995" lon="0.0564">
        <ele>616.5</ele>
        <time>2016-07-31T07:45:10Z</time>
      </trkpt>
      <trkpt lat="42.44993" lon="0.05634">
        <ele>618</ele>
        <time>2016-07-31T07:45:11Z</time>
      </trkpt>
      <trkpt lat="42.44991" lon="0.05628">
        <ele>619.6</ele>
        <time>2016-07-31T07:45:12Z</time>
      </trkpt>
      <trkpt lat="42.44988" lon="0.05623">
        <ele>621.5</ele>
        <time>2016-07-31T07:45:13Z</time>
      </trkpt>
      <trkpt lat="42.44986" lon="0.05617">
        <ele>623.6</ele>
        <time>2016-07-31T07:45:14Z</time>
      </trkpt>
      <trkpt lat="42.44983" lon="0.05611">
        <ele>625.9</ele>
        <time>2016-07-31T07:45:15Z</time>
      </trkpt>
      <trkpt lat="42.4498" lon="0.05606">
        <ele>627.9</ele>
        <time>2016-07-31T07:45:16Z</time>
      </trkpt>
      <trkpt lat="42.44977" lon="0.05602">
        <ele>629.8</ele>
        <time>2016-07-31T07:45:17Z</time>
      </trkpt>
      <trkpt lat="42.44974" lon="0.05598">
        <ele>631.5</ele>
        <time>2016-07-31T07:45:18Z</time>
      </trkpt>
      <trkpt lat="42.4497" lon="0.05595">
        <ele>633.1</ele>
        <time>2016-07-31T07:45:19Z</time>
      </trkpt>
      <trkpt lat="42.44967" lon="0.05593">
        <ele>634.5</ele>
        <time>2016-07-31T07:45:20Z</time>
      </trkpt>
      <trkpt lat="42.44964" lon="0.0559">
        <ele>635.9</ele>
        <time>2016-07-31T07:45:21Z</time>
      </trkpt>
      <trkpt lat="42.4496" lon="0.05588">
        <ele>637.4</ele>
        <time>2016-07-31T07:45:22Z</time>
      </trkpt>
      <trkpt lat="42.44956" lon="0.05585">
        <ele>638.7</ele>
        <time>2016-07-31T07:45:23Z</time>
      </trkpt>
      <trkpt lat="42.44952" lon="0.05585">
        <ele>639.5</ele>
        <time>2016-07-31T07:45:24Z</time>
      </trkpt>
      <trkpt lat="42.44949" lon="0.05582">
        <ele>640.8</ele>
        <time>2016-07-31T07:45:25Z</time>
      </trkpt>
      <trkpt lat="42.44945" lon="0.05582">
        <ele>641.6</ele>
        <time>2016-07-31T07:45:26Z</time>
      </trkpt>
      <trkpt lat="42.44941" lon="0.05581">
        <ele>642.4</ele>
        <time>2016-07-31T07:45:27Z</time>
      </trkpt>
      <trkpt lat="42.44937" lon="0.05581">
        <ele>643</ele>
        <time>2016-07-31T07:45:28Z</time>
      </trkpt>
      <trkpt lat="42.44934" lon="0.05581">
        <ele>643.5</ele>
        <time>2016-07-31T07:45:29Z</time>
      </trkpt>
      <trkpt lat="42.44931" lon="0.05581">
        <ele>643.9</ele>
        <time>2016-07-31T07:45:30Z</time>
      </trkpt>
      <trkpt lat="42.44927" lon="0.05582">
        <ele>644.3</ele>
        <time>2016-07-31T07:45:31Z</time>
      </trkpt>
      <trkpt lat="42.44924" lon="0.05582">
        <ele>644.6</ele>
        <time>2016-07-31T07:45:32Z</time>
      </trkpt>
      <trkpt lat="42.44921" lon="0.05584">
        <ele>644.7</ele>
        <time>2016-07-31T07:45:33Z</time>
      </trkpt>
      <trkpt lat="42.44917" lon="0.05585">
        <ele>644.9</ele>
        <time>2016-07-31T07:45:34Z</time>
      </trkpt>
      <trkpt lat="42.44914" lon="0.05586">
        <ele>645.1</ele>
        <time>2016-07-31T07:45:35Z</time>
      </trkpt>
      <trkpt lat="42.44911" lon="0.05588">
        <ele>645.2</ele>
        <time>2016-07-31T07:45:36Z</time>
      </trkpt>
      <trkpt lat="42.44908" lon="0.05589">
        <ele>645.3</ele>
        <time>2016-07-31T07:45:37Z</time>
      </trkpt>
      <trkpt lat="42.44904" lon="0.05591">
        <ele>645.5</ele>
        <time>2016-07-31T07:45:38Z</time>
      </trkpt>
      <trkpt lat="42.44901" lon="0.05592">
        <ele>645.7</ele>
        <time>2016-07-31T07:45:39Z</time>
      </trkpt>
      <trkpt lat="42.44898" lon="0.05594">
        <ele>645.8</ele>
        <time>2016-07-31T07:45:40Z</time>
      </trkpt>
      <trkpt lat="42.44895" lon="0.05595">
        <ele>646</ele>
        <time>2016-07-31T07:45:41Z</time>
      </trkpt>
      <trkpt lat="42.44892" lon="0.05597">
        <ele>646.2</ele>
        <time>2016-07-31T07:45:42Z</time>
      </trkpt>
      <trkpt lat="42.44889" lon="0.05598">
        <ele>646.4</ele>
        <time>2016-07-31T07:45:43Z</time>
      </trkpt>
      <trkpt lat="42.44886" lon="0.056">
        <ele>646.5</ele>
        <time>2016-07-31T07:45:44Z</time>
      </trkpt>
      <trkpt lat="42.44883" lon="0.05602">
        <ele>646.6</ele>
        <time>2016-07-31T07:45:45Z</time>
      </trkpt>
      <trkpt lat="42.4488" lon="0.05604">
        <ele>646.6</ele>
        <time>2016-07-31T07:45:46Z</time>
      </trkpt>
      <trkpt lat="42.44877" lon="0.05606">
        <ele>646.6</ele>
        <time>2016-07-31T07:45:47Z</time>
      </trkpt>
      <trkpt lat="42.44874" lon="0.05609">
        <ele>646.4</ele>
        <time>2016-07-31T07:45:48Z</time>
      </trkpt>
      <trkpt lat="42.44872" lon="0.05611">
        <ele>645.3</ele>
        <time>2016-07-31T07:45:49Z</time>
      </trkpt>
      <trkpt lat="42.44869" lon="0.05614">
        <ele>644.2</ele>
        <time>2016-07-31T07:45:50Z</time>
      </trkpt>
      <trkpt lat="42.44866" lon="0.05617">
        <ele>643</ele>
        <time>2016-07-31T07:45:51Z</time>
      </trkpt>
      <trkpt lat="42.44864" lon="0.0562">
        <ele>641.8</ele>
        <time>2016-07-31T07:45:52Z</time>
      </trkpt>
      <trkpt lat="42.44862" lon="0.05623">
        <ele>640.7</ele>
        <time>2016-07-31T07:45:53Z</time>
      </trkpt>
      <trkpt lat="42.4486" lon="0.05627">
        <ele>639.4</ele>
        <time>2016-07-31T07:45:54Z</time>
      </trkpt>
      <trkpt lat="42.44858" lon="0.0563">
        <ele>638.1</ele>
        <time>2016-07-31T07:45:55Z</time>
      </trkpt>
      <trkpt lat="42.44855" lon="0.05633">
        <ele>636.7</ele>
        <time>2016-07-31T07:45:56Z</time>
      </trkpt>
      <trkpt lat="42.44852" lon="0.05636">
        <ele>635.3</ele>
        <time>2016-07-31T07:45:57Z</time>
      </trkpt>
      <trkpt lat="42.4485" lon="0.05639">
        <ele>634</ele>
        <time>2016-07-31T07:45:58Z</time>
      </trkpt>
      <trkpt lat="42.44847" lon="0.05642">
        <ele>632.8</ele>
        <time>2016-07-31T07:45:59Z</time>
      </trkpt>
      <trkpt lat="42.44844" lon="0.05646">
        <ele>631.5</ele>
        <time>2016-07-31T07:46:00Z</time>
      </trkpt>
      <trkpt lat="42.44842" lon="0.05649">
        <ele>630.2</ele>
        <time>2016-07-31T07:46:01Z</time>
      </trkpt>
      <trkpt lat="42.44839" lon="0.05652">
        <ele>629</ele>
        <time>2016-07-31T07:46:02Z</time>
      </trkpt>
      <trkpt lat="42.44836" lon="0.05655">
        <ele>627.8</ele>
        <time>2016-07-31T07:46:03Z</time>
      </trkpt>
      <trkpt lat="42.44833" lon="0.05659">
        <ele>626.7</ele>
        <time>2016-07-31T07:46:04Z</time>
      </trkpt>
      <trkpt lat="42.44831" lon="0.05662">
        <ele>625.5</ele>
        <time>2016-07-31T07:46:05Z</time>
      </trkpt>
      <trkpt lat="42.44828" lon="0.05665">
        <ele>624.4</ele>
        <time>2016-07-31T07:46:06Z</time>
      </trkpt>
      <trkpt lat="42.44825" lon="0.05669">
        <ele>623.3</ele>
        <time>2016-07-31T07:46:07Z</time>
      </trkpt>
      <trkpt lat="42.44822" lon="0.05672">
        <ele>622.3</ele>
        <time>2016-07-31T07:46:08Z</time>
      </trkpt>
      <trkpt lat="42.44819" lon="0.05675">
        <ele>621.3</ele>
        <time>2016-07-31T07:46:09Z</time>
      </trkpt>
      <trkpt lat="42.44816" lon="0.05678">
        <ele>620.4</ele>
        <time>2016-07-31T07:46:10Z</time>
      </trkpt>
      <trkpt lat="42.44813" lon="0.0568">
        <ele>619.5</ele>
        <time>2016-07-31T07:46:11Z</time>
      </trkpt>
      <trkpt lat="42.44809" lon="0.05683">
        <ele>618.7</ele>
        <time>2016-07-31T07:46:12Z</time>
      </trkpt>
      <trkpt lat="42.44805" lon="0.05685">
        <ele>617.9</ele>
        <time>2016-07-31T07:46:13Z</time>
      </trkpt>
      <trkpt lat="42.448" lon="0.05686">
        <ele>617.3</ele>
        <time>2016-07-31T07:46:14Z</time>
      </trkpt>
      <trkpt lat="42.44795" lon="0.05686">
        <ele>616.8</ele>
        <time>2016-07-31T07:46:15Z</time>
      </trkpt>
      <trkpt lat="42.44791" lon="0.05685">
        <ele>616.9</ele>
        <time>2016-07-31T07:46:16Z</time>
      </trkpt>
      <trkpt lat="42.44786" lon="0.05682">
        <ele>618.4</ele>
        <time>2016-07-31T07:46:17Z</time>
      </trkpt>
      <trkpt lat="42.44783" lon="0.05678">
        <ele>619.8</ele>
        <time>2016-07-31T07:46:18Z</time>
      </trkpt>
      <trkpt lat="42.44781" lon="0.05673">
        <ele>620.9</ele>
        <time>2016-07-31T07:46:19Z</time>
      </trkpt>
      <trkpt lat="42.44778" lon="0.05668">
        <ele>622.1</ele>
        <time>2016-07-31T07:46:20Z</time>
      </trkpt>
      <trkpt lat="42.44776" lon="0.05663">
        <ele>623.1</ele>
        <time>2016-07-31T07:46:21Z</time>
      </trkpt>
      <trkpt lat="42.44773" lon="0.05656">
        <ele>624.3</ele>
        <time>2016-07-31T07:46:22Z</time>
      </trkpt>
      <trkpt lat="42.44773" lon="0.05649">
        <ele>625</ele>
        <time>2016-07-31T07:46:23Z</time>
      </trkpt>
      <trkpt lat="42.44773" lon="0.05643">
        <ele>625.6</ele>
        <time>2016-07-31T07:46:24Z</time>
      </trkpt>
      <trkpt lat="42.44773" lon="0.05636">
        <ele>626.3</ele>
        <time>2016-07-31T07:46:25Z</time>
      </trkpt>
      <trkpt lat="42.44773" lon="0.05629">
        <ele>627</ele>
        <time>2016-07-31T07:46:26Z</time>
      </trkpt>
      <trkpt lat="42.44772" lon="0.05624">
        <ele>627.6</ele>
        <time>2016-07-31T07:46:27Z</time>
      </trkpt>
      <trkpt lat="42.44771" lon="0.05619">
        <ele>628.4</ele>
        <time>2016-07-31T07:46:28Z</time>
      </trkpt>
      <trkpt lat="42.44769" lon="0.05613">
        <ele>629.5</ele>
        <time>2016-07-31T07:46:29Z</time>
      </trkpt>
      <trkpt lat="42.44767" lon="0.05608">
        <ele>630.4</ele>
        <time>2016-07-31T07:46:30Z</time>
      </trkpt>
      <trkpt lat="42.44764" lon="0.05602">
        <ele>631.3</ele>
        <time>2016-07-31T07:46:31Z</time>
      </trkpt>
      <trkpt lat="42.44762" lon="0.05598">
        <ele>631.9</ele>
        <time>2016-07-31T07:46:32Z</time>
      </trkpt>
      <trkpt lat="42.44759" lon="0.05593">
        <ele>632.5</ele>
        <time>2016-07-31T07:46:33Z</time>
      </trkpt>
      <trkpt lat="42.44756" lon="0.05589">
        <ele>632.8</ele>
        <time>2016-07-31T07:46:34Z</time>
      </trkpt>
      <trkpt lat="42.44752" lon="0.05585">
        <ele>632.9</ele>
        <time>2016-07-31T07:46:35Z</time>
      </trkpt>
      <trkpt lat="42.44749" lon="0.05581">
        <ele>633.1</ele>
        <time>2016-07-31T07:46:36Z</time>
      </trkpt>
      <trkpt lat="42.44745" lon="0.05577">
        <ele>633.2</ele>
        <time>2016-07-31T07:46:37Z</time>
      </trkpt>
      <trkpt lat="42.44742" lon="0.05574">
        <ele>633</ele>
        <time>2016-07-31T07:46:38Z</time>
      </trkpt>
      <trkpt lat="42.44739" lon="0.05569">
        <ele>633</ele>
        <time>2016-07-31T07:46:39Z</time>
      </trkpt>
      <trkpt lat="42.44736" lon="0.05566">
        <ele>632.8</ele>
        <time>2016-07-31T07:46:40Z</time>
      </trkpt>
      <trkpt lat="42.44732" lon="0.05563">
        <ele>632.5</ele>
        <time>2016-07-31T07:46:41Z</time>
      </trkpt>
      <trkpt lat="42.4473" lon="0.0556">
        <ele>632.3</ele>
        <time>2016-07-31T07:46:42Z</time>
      </trkpt>
      <trkpt lat="42.44729" lon="0.05557">
        <ele>632</ele>
        <time>2016-07-31T07:46:43Z</time>
      </trkpt>
      <trkpt lat="42.44726" lon="0.05554">
        <ele>631.7</ele>
        <time>2016-07-31T07:46:44Z</time>
      </trkpt>
      <trkpt lat="42.44723" lon="0.05549">
        <ele>631.2</ele>
        <time>2016-07-31T07:46:45Z</time>
      </trkpt>
      <trkpt lat="42.44721" lon="0.05546">
        <ele>630.7</ele>
        <time>2016-07-31T07:46:46Z</time>
      </trkpt>
      <trkpt lat="42.44719" lon="0.05542">
        <ele>630.3</ele>
        <time>2016-07-31T07:46:47Z</time>
      </trkpt>
      <trkpt lat="42.44717" lon="0.05538">
        <ele>630.2</ele>
        <time>2016-07-31T07:46:48Z</time>
      </trkpt>
      <trkpt lat="42.44715" lon="0.05534">
        <ele>630.1</ele>
        <time>2016-07-31T07:46:49Z</time>
      </trkpt>
      <trkpt lat="42.44714" lon="0.0553">
        <ele>630</ele>
        <time>2016-07-31T07:46:50Z</time>
      </trkpt>
      <trkpt lat="42.44712" lon="0.05526">
        <ele>630</ele>
        <time>2016-07-31T07:46:51Z</time>
      </trkpt>
      <trkpt lat="42.44711" lon="0.05522">
        <ele>629.9</ele>
        <time>2016-07-31T07:46:52Z</time>
      </trkpt>
      <trkpt lat="42.44709" lon="0.05518">
        <ele>629.9</ele>
        <time>2016-07-31T07:46:53Z</time>
      </trkpt>
      <trkpt lat="42.44707" lon="0.05514">
        <ele>630.4</ele>
        <time>2016-07-31T07:46:54Z</time>
      </trkpt>
      <trkpt lat="42.44706" lon="0.0551">
        <ele>631.2</ele>
        <time>2016-07-31T07:46:55Z</time>
      </trkpt>
      <trkpt lat="42.44704" lon="0.05506">
        <ele>632</ele>
        <time>2016-07-31T07:46:56Z</time>
      </trkpt>
      <trkpt lat="42.44703" lon="0.05503">
        <ele>632.7</ele>
        <time>2016-07-31T07:46:57Z</time>
      </trkpt>
      <trkpt lat="42.44701" lon="0.05499">
        <ele>633.5</ele>
        <time>2016-07-31T07:46:58Z</time>
      </trkpt>
      <trkpt lat="42.44699" lon="0.05496">
        <ele>634.2</ele>
        <time>2016-07-31T07:46:59Z</time>
      </trkpt>
      <trkpt lat="42.44698" lon="0.05493">
        <ele>634.9</ele>
        <time>2016-07-31T07:47:00Z</time>
      </trkpt>
      <trkpt lat="42.44696" lon="0.05489">
        <ele>635.5</ele>
        <time>2016-07-31T07:47:01Z</time>
      </trkpt>
      <trkpt lat="42.44694" lon="0.05484">
        <ele>636.2</ele>
        <time>2016-07-31T07:47:02Z</time>
      </trkpt>
      <trkpt lat="42.44693" lon="0.0548">
        <ele>636.7</ele>
        <time>2016-07-31T07:47:03Z</time>
      </trkpt>
      <trkpt lat="42.44691" lon="0.05476">
        <ele>637.2</ele>
        <time>2016-07-31T07:47:04Z</time>
      </trkpt>
      <trkpt lat="42.44689" lon="0.05472">
        <ele>637.8</ele>
        <time>2016-07-31T07:47:05Z</time>
      </trkpt>
      <trkpt lat="42.44687" lon="0.05468">
        <ele>638.4</ele>
        <time>2016-07-31T07:47:06Z</time>
      </trkpt>
      <trkpt lat="42.44686" lon="0.05465">
        <ele>638.9</ele>
        <time>2016-07-31T07:47:07Z</time>
      </trkpt>
      <trkpt lat="42.44684" lon="0.05461">
        <ele>639.3</ele>
        <time>2016-07-31T07:47:08Z</time>
      </trkpt>
      <trkpt lat="42.44682" lon="0.05457">
        <ele>639.7</ele>
        <time>2016-07-31T07:47:09Z</time>
      </trkpt>
      <trkpt lat="42.44681" lon="0.05454">
        <ele>640.2</ele>
        <time>2016-07-31T07:47:10Z</time>
      </trkpt>
      <trkpt lat="42.4468" lon="0.0545">
        <ele>640.6</ele>
        <time>2016-07-31T07:47:11Z</time>
      </trkpt>
      <trkpt lat="42.44679" lon="0.05446">
        <ele>641</ele>
        <time>2016-07-31T07:47:12Z</time>
      </trkpt>
      <trkpt lat="42.44677" lon="0.05442">
        <ele>641.4</ele>
        <time>2016-07-31T07:47:13Z</time>
      </trkpt>
      <trkpt lat="42.44676" lon="0.05438">
        <ele>641.8</ele>
        <time>2016-07-31T07:47:14Z</time>
      </trkpt>
      <trkpt lat="42.44674" lon="0.05434">
        <ele>642.2</ele>
        <time>2016-07-31T07:47:15Z</time>
      </trkpt>
      <trkpt lat="42.44674" lon="0.0543">
        <ele>642.5</ele>
        <time>2016-07-31T07:47:16Z</time>
      </trkpt>
      <trkpt lat="42.44673" lon="0.05425">
        <ele>642.7</ele>
        <time>2016-07-31T07:47:17Z</time>
      </trkpt>
      <trkpt lat="42.44672" lon="0.05421">
        <ele>643</ele>
        <time>2016-07-31T07:47:18Z</time>
      </trkpt>
      <trkpt lat="42.44671" lon="0.05417">
        <ele>643.2</ele>
        <time>2016-07-31T07:47:19Z</time>
      </trkpt>
      <trkpt lat="42.4467" lon="0.05413">
        <ele>643.4</ele>
        <time>2016-07-31T07:47:20Z</time>
      </trkpt>
      <trkpt lat="42.4467" lon="0.05409">
        <ele>643.6</ele>
        <time>2016-07-31T07:47:21Z</time>
      </trkpt>
      <trkpt lat="42.44669" lon="0.05405">
        <ele>643.8</ele>
        <time>2016-07-31T07:47:22Z</time>
      </trkpt>
      <trkpt lat="42.44668" lon="0.05401">
        <ele>643.9</ele>
        <time>2016-07-31T07:47:23Z</time>
      </trkpt>
      <trkpt lat="42.44667" lon="0.05397">
        <ele>644.1</ele>
        <time>2016-07-31T07:47:24Z</time>
      </trkpt>
      <trkpt lat="42.44667" lon="0.05392">
        <ele>644.2</ele>
        <time>2016-07-31T07:47:25Z</time>
      </trkpt>
      <trkpt lat="42.44667" lon="0.05388">
        <ele>644.3</ele>
        <time>2016-07-31T07:47:26Z</time>
      </trkpt>
      <trkpt lat="42.44667" lon="0.05384">
        <ele>644.3</ele>
        <time>2016-07-31T07:47:27Z</time>
      </trkpt>
      <trkpt lat="42.44667" lon="0.0538">
        <ele>644.4</ele>
        <time>2016-07-31T07:47:28Z</time>
      </trkpt>
      <trkpt lat="42.44668" lon="0.05376">
        <ele>644.5</ele>
        <time>2016-07-31T07:47:29Z</time>
      </trkpt>
      <trkpt lat="42.44668" lon="0.05372">
        <ele>644.3</ele>
        <time>2016-07-31T07:47:30Z</time>
      </trkpt>
      <trkpt lat="42.44668" lon="0.05368">
        <ele>644.1</ele>
        <time>2016-07-31T07:47:31Z</time>
      </trkpt>
      <trkpt lat="42.44668" lon="0.05364">
        <ele>643.9</ele>
        <time>2016-07-31T07:47:32Z</time>
      </trkpt>
      <trkpt lat="42.44668" lon="0.0536">
        <ele>643.7</ele>
        <time>2016-07-31T07:47:33Z</time>
      </trkpt>
      <trkpt lat="42.44668" lon="0.05355">
        <ele>643.4</ele>
        <time>2016-07-31T07:47:34Z</time>
      </trkpt>
      <trkpt lat="42.44668" lon="0.05351">
        <ele>643.2</ele>
        <time>2016-07-31T07:47:35Z</time>
      </trkpt>
      <trkpt lat="42.44668" lon="0.05347">
        <ele>643</ele>
        <time>2016-07-31T07:47:36Z</time>
      </trkpt>
      <trkpt lat="42.44668" lon="0.05343">
        <ele>642.8</ele>
        <time>2016-07-31T07:47:37Z</time>
      </trkpt>
      <trkpt lat="42.44668" lon="0.05339">
        <ele>642.6</ele>
        <time>2016-07-31T07:47:38Z</time>
      </trkpt>
      <trkpt lat="42.44668" lon="0.05335">
        <ele>642.4</ele>
        <time>2016-07-31T07:47:39Z</time>
      </trkpt>
      <trkpt lat="42.44668" lon="0.05331">
        <ele>642.2</ele>
        <time>2016-07-31T07:47:40Z</time>
      </trkpt>
      <trkpt lat="42.44667" lon="0.05327">
        <ele>641.9</ele>
        <time>2016-07-31T07:47:41Z</time>
      </trkpt>
      <trkpt lat="42.44667" lon="0.05322">
        <ele>641.7</ele>
        <time>2016-07-31T07:47:42Z</time>
      </trkpt>
      <trkpt lat="42.44668" lon="0.05318">
        <ele>641.5</ele>
        <time>2016-07-31T07:47:43Z</time>
      </trkpt>
      <trkpt lat="42.44668" lon="0.05314">
        <ele>641.3</ele>
        <time>2016-07-31T07:47:44Z</time>
      </trkpt>
      <trkpt lat="42.44668" lon="0.0531">
        <ele>641.1</ele>
        <time>2016-07-31T07:47:45Z</time>
      </trkpt>
      <trkpt lat="42.44668" lon="0.05306">
        <ele>641</ele>
        <time>2016-07-31T07:47:46Z</time>
      </trkpt>
      <trkpt lat="42.44669" lon="0.05302">
        <ele>640.8</ele>
        <time>2016-07-31T07:47:47Z</time>
      </trkpt>
      <trkpt lat="42.44669" lon="0.05298">
        <ele>640.6</ele>
        <time>2016-07-31T07:47:48Z</time>
      </trkpt>
      <trkpt lat="42.44669" lon="0.05294">
        <ele>640.4</ele>
        <time>2016-07-31T07:47:49Z</time>
      </trkpt>
      <trkpt lat="42.44669" lon="0.0529">
        <ele>640.4</ele>
        <time>2016-07-31T07:47:50Z</time>
      </trkpt>
      <trkpt lat="42.4467" lon="0.05285">
        <ele>640.4</ele>
        <time>2016-07-31T07:47:51Z</time>
      </trkpt>
      <trkpt lat="42.4467" lon="0.05282">
        <ele>640.4</ele>
        <time>2016-07-31T07:47:52Z</time>
      </trkpt>
      <trkpt lat="42.4467" lon="0.05278">
        <ele>640.4</ele>
        <time>2016-07-31T07:47:53Z</time>
      </trkpt>
      <trkpt lat="42.4467" lon="0.05274">
        <ele>640.4</ele>
        <time>2016-07-31T07:47:54Z</time>
      </trkpt>
      <trkpt lat="42.4467" lon="0.0527">
        <ele>640.3</ele>
        <time>2016-07-31T07:47:55Z</time>
      </trkpt>
      <trkpt lat="42.44669" lon="0.05266">
        <ele>640.3</ele>
        <time>2016-07-31T07:47:56Z</time>
      </trkpt>
      <trkpt lat="42.44669" lon="0.05262">
        <ele>640.2</ele>
        <time>2016-07-31T07:47:57Z</time>
      </trkpt>
      <trkpt lat="42.44669" lon="0.05259">
        <ele>640.2</ele>
        <time>2016-07-31T07:47:58Z</time>
      </trkpt>
      <trkpt lat="42.44669" lon="0.05255">
        <ele>640.1</ele>
        <time>2016-07-31T07:47:59Z</time>
      </trkpt>
      <trkpt lat="42.44669" lon="0.05251">
        <ele>640.1</ele>
        <time>2016-07-31T07:48:00Z</time>
      </trkpt>
      <trkpt lat="42.44669" lon="0.05247">
        <ele>640.1</ele>
        <time>2016-07-31T07:48:01Z</time>
      </trkpt>
      <trkpt lat="42.44669" lon="0.05244">
        <ele>640.1</ele>
        <time>2016-07-31T07:48:02Z</time>
      </trkpt>
      <trkpt lat="42.44669" lon="0.0524">
        <ele>640.1</ele>
        <time>2016-07-31T07:48:03Z</time>
      </trkpt>
      <trkpt lat="42.44669" lon="0.05236">
        <ele>640</ele>
        <time>2016-07-31T07:48:04Z</time>
      </trkpt>
      <trkpt lat="42.44669" lon="0.05232">
        <ele>640</ele>
        <time>2016-07-31T07:48:05Z</time>
      </trkpt>
      <trkpt lat="42.44669" lon="0.05228">
        <ele>640</ele>
        <time>2016-07-31T07:48:06Z</time>
      </trkpt>
      <trkpt lat="42.44669" lon="0.05224">
        <ele>639.9</ele>
        <time>2016-07-31T07:48:07Z</time>
      </trkpt>
      <trkpt lat="42.44669" lon="0.05219">
        <ele>639.9</ele>
        <time>2016-07-31T07:48:08Z</time>
      </trkpt>
      <trkpt lat="42.44669" lon="0.05215">
        <ele>640</ele>
        <time>2016-07-31T07:48:09Z</time>
      </trkpt>
      <trkpt lat="42.44669" lon="0.05211">
        <ele>640</ele>
        <time>2016-07-31T07:48:10Z</time>
      </trkpt>
      <trkpt lat="42.4467" lon="0.05206">
        <ele>640</ele>
        <time>2016-07-31T07:48:11Z</time>
      </trkpt>
      <trkpt lat="42.4467" lon="0.05202">
        <ele>639.8</ele>
        <time>2016-07-31T07:48:12Z</time>
      </trkpt>
      <trkpt lat="42.44671" lon="0.05198">
        <ele>639.7</ele>
        <time>2016-07-31T07:48:13Z</time>
      </trkpt>
      <trkpt lat="42.44672" lon="0.05194">
        <ele>639.7</ele>
        <time>2016-07-31T07:48:14Z</time>
      </trkpt>
      <trkpt lat="42.44673" lon="0.0519">
        <ele>639.7</ele>
        <time>2016-07-31T07:48:15Z</time>
      </trkpt>
      <trkpt lat="42.44674" lon="0.05186">
        <ele>639.7</ele>
        <time>2016-07-31T07:48:16Z</time>
      </trkpt>
      <trkpt lat="42.44675" lon="0.05182">
        <ele>639.7</ele>
        <time>2016-07-31T07:48:17Z</time>
      </trkpt>
      <trkpt lat="42.44677" lon="0.05178">
        <ele>639.7</ele>
        <time>2016-07-31T07:48:18Z</time>
      </trkpt>
      <trkpt lat="42.44678" lon="0.05174">
        <ele>639.7</ele>
        <time>2016-07-31T07:48:19Z</time>
      </trkpt>
      <trkpt lat="42.44679" lon="0.05171">
        <ele>639.7</ele>
        <time>2016-07-31T07:48:20Z</time>
      </trkpt>
      <trkpt lat="42.4468" lon="0.05167">
        <ele>639.7</ele>
        <time>2016-07-31T07:48:21Z</time>
      </trkpt>
      <trkpt lat="42.44681" lon="0.05163">
        <ele>639.6</ele>
        <time>2016-07-31T07:48:22Z</time>
      </trkpt>
      <trkpt lat="42.44681" lon="0.05159">
        <ele>639.6</ele>
        <time>2016-07-31T07:48:23Z</time>
      </trkpt>
      <trkpt lat="42.44682" lon="0.05154">
        <ele>639.5</ele>
        <time>2016-07-31T07:48:24Z</time>
      </trkpt>
      <trkpt lat="42.44683" lon="0.0515">
        <ele>639.4</ele>
        <time>2016-07-31T07:48:25Z</time>
      </trkpt>
      <trkpt lat="42.44684" lon="0.05146">
        <ele>639.3</ele>
        <time>2016-07-31T07:48:26Z</time>
      </trkpt>
      <trkpt lat="42.44684" lon="0.05142">
        <ele>639.2</ele>
        <time>2016-07-31T07:48:27Z</time>
      </trkpt>
      <trkpt lat="42.44685" lon="0.05138">
        <ele>639.1</ele>
        <time>2016-07-31T07:48:28Z</time>
      </trkpt>
      <trkpt lat="42.44685" lon="0.05134">
        <ele>639</ele>
        <time>2016-07-31T07:48:29Z</time>
      </trkpt>
      <trkpt lat="42.44685" lon="0.0513">
        <ele>638.8</ele>
        <time>2016-07-31T07:48:30Z</time>
      </trkpt>
      <trkpt lat="42.44685" lon="0.05126">
        <ele>638.6</ele>
        <time>2016-07-31T07:48:31Z</time>
      </trkpt>
      <trkpt lat="42.44685" lon="0.05122">
        <ele>638.6</ele>
        <time>2016-07-31T07:48:32Z</time>
      </trkpt>
      <trkpt lat="42.44685" lon="0.05119">
        <ele>638.9</ele>
        <time>2016-07-31T07:48:33Z</time>
      </trkpt>
      <trkpt lat="42.44685" lon="0.05115">
        <ele>639.1</ele>
        <time>2016-07-31T07:48:34Z</time>
      </trkpt>
      <trkpt lat="42.44686" lon="0.05111">
        <ele>639.4</ele>
        <time>2016-07-31T07:48:35Z</time>
      </trkpt>
      <trkpt lat="42.44686" lon="0.05107">
        <ele>639.7</ele>
        <time>2016-07-31T07:48:36Z</time>
      </trkpt>
      <trkpt lat="42.44687" lon="0.05103">
        <ele>639.9</ele>
        <time>2016-07-31T07:48:37Z</time>
      </trkpt>
      <trkpt lat="42.44688" lon="0.051">
        <ele>640.2</ele>
        <time>2016-07-31T07:48:38Z</time>
      </trkpt>
      <trkpt lat="42.44689" lon="0.05093">
        <ele>640.8</ele>
        <time>2016-07-31T07:48:40Z</time>
      </trkpt>
      <trkpt lat="42.44692" lon="0.05087">
        <ele>641.5</ele>
        <time>2016-07-31T07:48:42Z</time>
      </trkpt>
      <trkpt lat="42.44695" lon="0.05081">
        <ele>642.4</ele>
        <time>2016-07-31T07:48:44Z</time>
      </trkpt>
      <trkpt lat="42.44697" lon="0.05078">
        <ele>642.8</ele>
        <time>2016-07-31T07:48:45Z</time>
      </trkpt>
      <trkpt lat="42.44699" lon="0.05075">
        <ele>643.3</ele>
        <time>2016-07-31T07:48:46Z</time>
      </trkpt>
      <trkpt lat="42.44701" lon="0.05073">
        <ele>643.7</ele>
        <time>2016-07-31T07:48:47Z</time>
      </trkpt>
      <trkpt lat="42.44703" lon="0.0507">
        <ele>644.1</ele>
        <time>2016-07-31T07:48:48Z</time>
      </trkpt>
      <trkpt lat="42.44705" lon="0.05067">
        <ele>644.6</ele>
        <time>2016-07-31T07:48:49Z</time>
      </trkpt>
      <trkpt lat="42.44708" lon="0.05064">
        <ele>645.1</ele>
        <time>2016-07-31T07:48:50Z</time>
      </trkpt>
      <trkpt lat="42.4471" lon="0.05061">
        <ele>646</ele>
        <time>2016-07-31T07:48:51Z</time>
      </trkpt>
      <trkpt lat="42.44712" lon="0.05058">
        <ele>647</ele>
        <time>2016-07-31T07:48:52Z</time>
      </trkpt>
      <trkpt lat="42.44714" lon="0.05055">
        <ele>648.1</ele>
        <time>2016-07-31T07:48:53Z</time>
      </trkpt>
      <trkpt lat="42.44716" lon="0.05052">
        <ele>649.1</ele>
        <time>2016-07-31T07:48:54Z</time>
      </trkpt>
      <trkpt lat="42.44719" lon="0.05049">
        <ele>650</ele>
        <time>2016-07-31T07:48:55Z</time>
      </trkpt>
      <trkpt lat="42.44721" lon="0.05046">
        <ele>650.9</ele>
        <time>2016-07-31T07:48:56Z</time>
      </trkpt>
      <trkpt lat="42.44723" lon="0.05042">
        <ele>651.8</ele>
        <time>2016-07-31T07:48:57Z</time>
      </trkpt>
      <trkpt lat="42.44724" lon="0.05039">
        <ele>653.2</ele>
        <time>2016-07-31T07:48:58Z</time>
      </trkpt>
      <trkpt lat="42.44726" lon="0.05035">
        <ele>654.7</ele>
        <time>2016-07-31T07:48:59Z</time>
      </trkpt>
      <trkpt lat="42.44727" lon="0.05032">
        <ele>656.1</ele>
        <time>2016-07-31T07:49:00Z</time>
      </trkpt>
      <trkpt lat="42.44728" lon="0.05028">
        <ele>657.4</ele>
        <time>2016-07-31T07:49:01Z</time>
      </trkpt>
      <trkpt lat="42.44729" lon="0.05024">
        <ele>658.6</ele>
        <time>2016-07-31T07:49:02Z</time>
      </trkpt>
      <trkpt lat="42.4473" lon="0.0502">
        <ele>659.8</ele>
        <time>2016-07-31T07:49:03Z</time>
      </trkpt>
      <trkpt lat="42.4473" lon="0.05016">
        <ele>660.8</ele>
        <time>2016-07-31T07:49:04Z</time>
      </trkpt>
      <trkpt lat="42.4473" lon="0.05012">
        <ele>661.8</ele>
        <time>2016-07-31T07:49:05Z</time>
      </trkpt>
      <trkpt lat="42.4473" lon="0.05005">
        <ele>663.5</ele>
        <time>2016-07-31T07:49:07Z</time>
      </trkpt>
      <trkpt lat="42.4473" lon="0.05001">
        <ele>664.4</ele>
        <time>2016-07-31T07:49:08Z</time>
      </trkpt>
      <trkpt lat="42.4473" lon="0.04997">
        <ele>665.3</ele>
        <time>2016-07-31T07:49:09Z</time>
      </trkpt>
      <trkpt lat="42.44729" lon="0.04993">
        <ele>666.1</ele>
        <time>2016-07-31T07:49:10Z</time>
      </trkpt>
      <trkpt lat="42.44728" lon="0.04988">
        <ele>666.9</ele>
        <time>2016-07-31T07:49:11Z</time>
      </trkpt>
      <trkpt lat="42.44727" lon="0.04983">
        <ele>667.7</ele>
        <time>2016-07-31T07:49:12Z</time>
      </trkpt>
      <trkpt lat="42.44725" lon="0.04979">
        <ele>668.3</ele>
        <time>2016-07-31T07:49:13Z</time>
      </trkpt>
      <trkpt lat="42.44723" lon="0.04975">
        <ele>668.9</ele>
        <time>2016-07-31T07:49:14Z</time>
      </trkpt>
      <trkpt lat="42.44721" lon="0.0497">
        <ele>669.4</ele>
        <time>2016-07-31T07:49:15Z</time>
      </trkpt>
      <trkpt lat="42.44718" lon="0.04966">
        <ele>669.8</ele>
        <time>2016-07-31T07:49:16Z</time>
      </trkpt>
      <trkpt lat="42.44714" lon="0.04962">
        <ele>670.1</ele>
        <time>2016-07-31T07:49:17Z</time>
      </trkpt>
      <trkpt lat="42.44711" lon="0.04959">
        <ele>670.3</ele>
        <time>2016-07-31T07:49:18Z</time>
      </trkpt>
      <trkpt lat="42.44707" lon="0.04956">
        <ele>669.9</ele>
        <time>2016-07-31T07:49:19Z</time>
      </trkpt>
      <trkpt lat="42.44703" lon="0.04954">
        <ele>669.2</ele>
        <time>2016-07-31T07:49:20Z</time>
      </trkpt>
      <trkpt lat="42.44699" lon="0.04952">
        <ele>668.4</ele>
        <time>2016-07-31T07:49:21Z</time>
      </trkpt>
      <trkpt lat="42.44694" lon="0.0495">
        <ele>667.4</ele>
        <time>2016-07-31T07:49:22Z</time>
      </trkpt>
      <trkpt lat="42.4469" lon="0.04949">
        <ele>666.4</ele>
        <time>2016-07-31T07:49:23Z</time>
      </trkpt>
      <trkpt lat="42.44684" lon="0.04948">
        <ele>665</ele>
        <time>2016-07-31T07:49:24Z</time>
      </trkpt>
      <trkpt lat="42.4468" lon="0.04946">
        <ele>664.1</ele>
        <time>2016-07-31T07:49:25Z</time>
      </trkpt>
      <trkpt lat="42.44676" lon="0.04943">
        <ele>663.2</ele>
        <time>2016-07-31T07:49:26Z</time>
      </trkpt>
      <trkpt lat="42.44671" lon="0.04941">
        <ele>662.2</ele>
        <time>2016-07-31T07:49:27Z</time>
      </trkpt>
      <trkpt lat="42.44667" lon="0.0494">
        <ele>661.2</ele>
        <time>2016-07-31T07:49:28Z</time>
      </trkpt>
      <trkpt lat="42.44663" lon="0.04939">
        <ele>660.1</ele>
        <time>2016-07-31T07:49:29Z</time>
      </trkpt>
      <trkpt lat="42.44659" lon="0.04938">
        <ele>659.2</ele>
        <time>2016-07-31T07:49:30Z</time>
      </trkpt>
      <trkpt lat="42.44655" lon="0.04935">
        <ele>658.1</ele>
        <time>2016-07-31T07:49:31Z</time>
      </trkpt>
      <trkpt lat="42.4465" lon="0.04934">
        <ele>657</ele>
        <time>2016-07-31T07:49:32Z</time>
      </trkpt>
      <trkpt lat="42.44645" lon="0.04932">
        <ele>655.8</ele>
        <time>2016-07-31T07:49:33Z</time>
      </trkpt>
      <trkpt lat="42.44641" lon="0.0493">
        <ele>654.7</ele>
        <time>2016-07-31T07:49:34Z</time>
      </trkpt>
      <trkpt lat="42.44636" lon="0.04928">
        <ele>653.5</ele>
        <time>2016-07-31T07:49:35Z</time>
      </trkpt>
      <trkpt lat="42.44632" lon="0.04925">
        <ele>652.4</ele>
        <time>2016-07-31T07:49:36Z</time>
      </trkpt>
      <trkpt lat="42.44628" lon="0.04922">
        <ele>651.4</ele>
        <time>2016-07-31T07:49:37Z</time>
      </trkpt>
      <trkpt lat="42.44623" lon="0.0492">
        <ele>650.6</ele>
        <time>2016-07-31T07:49:38Z</time>
      </trkpt>
      <trkpt lat="42.44619" lon="0.04916">
        <ele>650.5</ele>
        <time>2016-07-31T07:49:39Z</time>
      </trkpt>
      <trkpt lat="42.44616" lon="0.04911">
        <ele>650.5</ele>
        <time>2016-07-31T07:49:40Z</time>
      </trkpt>
      <trkpt lat="42.44612" lon="0.04906">
        <ele>650.4</ele>
        <time>2016-07-31T07:49:41Z</time>
      </trkpt>
      <trkpt lat="42.44606" lon="0.04887">
        <ele>650.5</ele>
        <time>2016-07-31T07:49:44Z</time>
      </trkpt>
      <trkpt lat="42.44604" lon="0.04881">
        <ele>650.5</ele>
        <time>2016-07-31T07:49:45Z</time>
      </trkpt>
      <trkpt lat="42.44604" lon="0.04875">
        <ele>650.7</ele>
        <time>2016-07-31T07:49:46Z</time>
      </trkpt>
      <trkpt lat="42.44603" lon="0.04869">
        <ele>650.6</ele>
        <time>2016-07-31T07:49:47Z</time>
      </trkpt>
      <trkpt lat="42.44603" lon="0.04863">
        <ele>650.5</ele>
        <time>2016-07-31T07:49:48Z</time>
      </trkpt>
      <trkpt lat="42.44603" lon="0.04858">
        <ele>650.6</ele>
        <time>2016-07-31T07:49:49Z</time>
      </trkpt>
      <trkpt lat="42.44604" lon="0.04851">
        <ele>650.6</ele>
        <time>2016-07-31T07:49:50Z</time>
      </trkpt>
      <trkpt lat="42.44604" lon="0.04844">
        <ele>650.7</ele>
        <time>2016-07-31T07:49:51Z</time>
      </trkpt>
      <trkpt lat="42.44605" lon="0.04838">
        <ele>650.7</ele>
        <time>2016-07-31T07:49:52Z</time>
      </trkpt>
      <trkpt lat="42.44606" lon="0.04832">
        <ele>650.9</ele>
        <time>2016-07-31T07:49:53Z</time>
      </trkpt>
      <trkpt lat="42.44607" lon="0.04825">
        <ele>651</ele>
        <time>2016-07-31T07:49:54Z</time>
      </trkpt>
      <trkpt lat="42.44609" lon="0.04818">
        <ele>651.1</ele>
        <time>2016-07-31T07:49:55Z</time>
      </trkpt>
      <trkpt lat="42.44609" lon="0.04812">
        <ele>651.1</ele>
        <time>2016-07-31T07:49:56Z</time>
      </trkpt>
      <trkpt lat="42.4461" lon="0.04805">
        <ele>651.3</ele>
        <time>2016-07-31T07:49:57Z</time>
      </trkpt>
      <trkpt lat="42.44611" lon="0.04799">
        <ele>651.4</ele>
        <time>2016-07-31T07:49:58Z</time>
      </trkpt>
      <trkpt lat="42.44612" lon="0.04793">
        <ele>651.4</ele>
        <time>2016-07-31T07:49:59Z</time>
      </trkpt>
      <trkpt lat="42.44613" lon="0.04786">
        <ele>652.2</ele>
        <time>2016-07-31T07:50:00Z</time>
      </trkpt>
      <trkpt lat="42.44614" lon="0.0478">
        <ele>653.1</ele>
        <time>2016-07-31T07:50:01Z</time>
      </trkpt>
      <trkpt lat="42.44614" lon="0.04774">
        <ele>654</ele>
        <time>2016-07-31T07:50:02Z</time>
      </trkpt>
      <trkpt lat="42.44614" lon="0.04766">
        <ele>655</ele>
        <time>2016-07-31T07:50:03Z</time>
      </trkpt>
      <trkpt lat="42.44614" lon="0.0476">
        <ele>655.9</ele>
        <time>2016-07-31T07:50:04Z</time>
      </trkpt>
      <trkpt lat="42.44615" lon="0.04753">
        <ele>656.7</ele>
        <time>2016-07-31T07:50:05Z</time>
      </trkpt>
      <trkpt lat="42.44616" lon="0.04746">
        <ele>657.7</ele>
        <time>2016-07-31T07:50:06Z</time>
      </trkpt>
      <trkpt lat="42.44615" lon="0.0474">
        <ele>658.4</ele>
        <time>2016-07-31T07:50:07Z</time>
      </trkpt>
      <trkpt lat="42.44615" lon="0.04735">
        <ele>659.1</ele>
        <time>2016-07-31T07:50:08Z</time>
      </trkpt>
      <trkpt lat="42.44614" lon="0.04728">
        <ele>660</ele>
        <time>2016-07-31T07:50:09Z</time>
      </trkpt>
      <trkpt lat="42.44612" lon="0.04722">
        <ele>660.8</ele>
        <time>2016-07-31T07:50:10Z</time>
      </trkpt>
      <trkpt lat="42.44611" lon="0.04716">
        <ele>661.7</ele>
        <time>2016-07-31T07:50:11Z</time>
      </trkpt>
      <trkpt lat="42.44608" lon="0.0471">
        <ele>662.6</ele>
        <time>2016-07-31T07:50:12Z</time>
      </trkpt>
      <trkpt lat="42.44605" lon="0.04705">
        <ele>663.5</ele>
        <time>2016-07-31T07:50:13Z</time>
      </trkpt>
      <trkpt lat="42.44601" lon="0.04701">
        <ele>664.2</ele>
        <time>2016-07-31T07:50:14Z</time>
      </trkpt>
      <trkpt lat="42.44597" lon="0.04699">
        <ele>664.8</ele>
        <time>2016-07-31T07:50:15Z</time>
      </trkpt>
      <trkpt lat="42.44593" lon="0.04696">
        <ele>665.5</ele>
        <time>2016-07-31T07:50:16Z</time>
      </trkpt>
      <trkpt lat="42.44588" lon="0.04694">
        <ele>666.3</ele>
        <time>2016-07-31T07:50:17Z</time>
      </trkpt>
      <trkpt lat="42.44584" lon="0.04692">
        <ele>666.9</ele>
        <time>2016-07-31T07:50:18Z</time>
      </trkpt>
      <trkpt lat="42.4458" lon="0.0469">
        <ele>667.6</ele>
        <time>2016-07-31T07:50:19Z</time>
      </trkpt>
      <trkpt lat="42.44574" lon="0.04689">
        <ele>668.4</ele>
        <time>2016-07-31T07:50:20Z</time>
      </trkpt>
      <trkpt lat="42.4457" lon="0.04689">
        <ele>668.8</ele>
        <time>2016-07-31T07:50:21Z</time>
      </trkpt>
      <trkpt lat="42.44565" lon="0.04688">
        <ele>669.5</ele>
        <time>2016-07-31T07:50:22Z</time>
      </trkpt>
      <trkpt lat="42.4456" lon="0.04686">
        <ele>670.2</ele>
        <time>2016-07-31T07:50:23Z</time>
      </trkpt>
      <trkpt lat="42.44555" lon="0.04684">
        <ele>671.2</ele>
        <time>2016-07-31T07:50:24Z</time>
      </trkpt>
      <trkpt lat="42.44551" lon="0.04684">
        <ele>671.8</ele>
        <time>2016-07-31T07:50:25Z</time>
      </trkpt>
      <trkpt lat="42.44546" lon="0.04682">
        <ele>672.8</ele>
        <time>2016-07-31T07:50:26Z</time>
      </trkpt>
      <trkpt lat="42.44542" lon="0.04681">
        <ele>673.6</ele>
        <time>2016-07-31T07:50:27Z</time>
      </trkpt>
      <trkpt lat="42.44537" lon="0.04681">
        <ele>674</ele>
        <time>2016-07-31T07:50:28Z</time>
      </trkpt>
      <trkpt lat="42.44533" lon="0.0468">
        <ele>674.6</ele>
        <time>2016-07-31T07:50:29Z</time>
      </trkpt>
      <trkpt lat="42.44528" lon="0.04678">
        <ele>675.3</ele>
        <time>2016-07-31T07:50:30Z</time>
      </trkpt>
      <trkpt lat="42.44524" lon="0.04676">
        <ele>676.3</ele>
        <time>2016-07-31T07:50:31Z</time>
      </trkpt>
      <trkpt lat="42.4452" lon="0.04675">
        <ele>676.8</ele>
        <time>2016-07-31T07:50:32Z</time>
      </trkpt>
      <trkpt lat="42.44515" lon="0.04675">
        <ele>677.3</ele>
        <time>2016-07-31T07:50:33Z</time>
      </trkpt>
      <trkpt lat="42.4451" lon="0.04673">
        <ele>678.2</ele>
        <time>2016-07-31T07:50:34Z</time>
      </trkpt>
      <trkpt lat="42.44505" lon="0.04672">
        <ele>679</ele>
        <time>2016-07-31T07:50:35Z</time>
      </trkpt>
      <trkpt lat="42.445" lon="0.0467">
        <ele>680</ele>
        <time>2016-07-31T07:50:36Z</time>
      </trkpt>
      <trkpt lat="42.44496" lon="0.04669">
        <ele>680.6</ele>
        <time>2016-07-31T07:50:37Z</time>
      </trkpt>
      <trkpt lat="42.44492" lon="0.04668">
        <ele>681.2</ele>
        <time>2016-07-31T07:50:38Z</time>
      </trkpt>
      <trkpt lat="42.44488" lon="0.04667">
        <ele>682</ele>
        <time>2016-07-31T07:50:39Z</time>
      </trkpt>
      <trkpt lat="42.44484" lon="0.04666">
        <ele>682.5</ele>
        <time>2016-07-31T07:50:40Z</time>
      </trkpt>
      <trkpt lat="42.4448" lon="0.04666">
        <ele>682.9</ele>
        <time>2016-07-31T07:50:41Z</time>
      </trkpt>
      <trkpt lat="42.44476" lon="0.04666">
        <ele>683.3</ele>
        <time>2016-07-31T07:50:42Z</time>
      </trkpt>
      <trkpt lat="42.44472" lon="0.04665">
        <ele>683.8</ele>
        <time>2016-07-31T07:50:43Z</time>
      </trkpt>
      <trkpt lat="42.44468" lon="0.04664">
        <ele>684.5</ele>
        <time>2016-07-31T07:50:44Z</time>
      </trkpt>
      <trkpt lat="42.44464" lon="0.04663">
        <ele>685.2</ele>
        <time>2016-07-31T07:50:45Z</time>
      </trkpt>
      <trkpt lat="42.4446" lon="0.04662">
        <ele>685.9</ele>
        <time>2016-07-31T07:50:46Z</time>
      </trkpt>
      <trkpt lat="42.44457" lon="0.04662">
        <ele>686.3</ele>
        <time>2016-07-31T07:50:47Z</time>
      </trkpt>
      <trkpt lat="42.44453" lon="0.04662">
        <ele>686.2</ele>
        <time>2016-07-31T07:50:48Z</time>
      </trkpt>
      <trkpt lat="42.4445" lon="0.04662">
        <ele>686.1</ele>
        <time>2016-07-31T07:50:49Z</time>
      </trkpt>
      <trkpt lat="42.44446" lon="0.04662">
        <ele>686.1</ele>
        <time>2016-07-31T07:50:50Z</time>
      </trkpt>
      <trkpt lat="42.44443" lon="0.04662">
        <ele>686</ele>
        <time>2016-07-31T07:50:51Z</time>
      </trkpt>
      <trkpt lat="42.44439" lon="0.04663">
        <ele>685.9</ele>
        <time>2016-07-31T07:50:52Z</time>
      </trkpt>
      <trkpt lat="42.44436" lon="0.04663">
        <ele>685.8</ele>
        <time>2016-07-31T07:50:53Z</time>
      </trkpt>
      <trkpt lat="42.44433" lon="0.04664">
        <ele>685.5</ele>
        <time>2016-07-31T07:50:54Z</time>
      </trkpt>
      <trkpt lat="42.4443" lon="0.04665">
        <ele>685.2</ele>
        <time>2016-07-31T07:50:55Z</time>
      </trkpt>
      <trkpt lat="42.44427" lon="0.04666">
        <ele>684.9</ele>
        <time>2016-07-31T07:50:56Z</time>
      </trkpt>
      <trkpt lat="42.44424" lon="0.04666">
        <ele>684.7</ele>
        <time>2016-07-31T07:50:57Z</time>
      </trkpt>
      <trkpt lat="42.4442" lon="0.04667">
        <ele>684.5</ele>
        <time>2016-07-31T07:50:58Z</time>
      </trkpt>
      <trkpt lat="42.44417" lon="0.04667">
        <ele>684.4</ele>
        <time>2016-07-31T07:50:59Z</time>
      </trkpt>
      <trkpt lat="42.44414" lon="0.04667">
        <ele>684.3</ele>
        <time>2016-07-31T07:51:00Z</time>
      </trkpt>
      <trkpt lat="42.4441" lon="0.04668">
        <ele>684.1</ele>
        <time>2016-07-31T07:51:01Z</time>
      </trkpt>
      <trkpt lat="42.44407" lon="0.04668">
        <ele>683.9</ele>
        <time>2016-07-31T07:51:02Z</time>
      </trkpt>
      <trkpt lat="42.44404" lon="0.04668">
        <ele>683.9</ele>
        <time>2016-07-31T07:51:03Z</time>
      </trkpt>
      <trkpt lat="42.44401" lon="0.04668">
        <ele>684</ele>
        <time>2016-07-31T07:51:04Z</time>
      </trkpt>
      <trkpt lat="42.44397" lon="0.04668">
        <ele>684.2</ele>
        <time>2016-07-31T07:51:05Z</time>
      </trkpt>
      <trkpt lat="42.44394" lon="0.04667">
        <ele>684.5</ele>
        <time>2016-07-31T07:51:06Z</time>
      </trkpt>
      <trkpt lat="42.44391" lon="0.04666">
        <ele>684.7</ele>
        <time>2016-07-31T07:51:07Z</time>
      </trkpt>
      <trkpt lat="42.44388" lon="0.04665">
        <ele>685.1</ele>
        <time>2016-07-31T07:51:08Z</time>
      </trkpt>
      <trkpt lat="42.44385" lon="0.04664">
        <ele>685.6</ele>
        <time>2016-07-31T07:51:09Z</time>
      </trkpt>
      <trkpt lat="42.44383" lon="0.04662">
        <ele>686.1</ele>
        <time>2016-07-31T07:51:10Z</time>
      </trkpt>
      <trkpt lat="42.4438" lon="0.04661">
        <ele>686.6</ele>
        <time>2016-07-31T07:51:11Z</time>
      </trkpt>
      <trkpt lat="42.44378" lon="0.04659">
        <ele>687.2</ele>
        <time>2016-07-31T07:51:12Z</time>
      </trkpt>
      <trkpt lat="42.44375" lon="0.04658">
        <ele>687.7</ele>
        <time>2016-07-31T07:51:13Z</time>
      </trkpt>
      <trkpt lat="42.44372" lon="0.04657">
        <ele>688.1</ele>
        <time>2016-07-31T07:51:14Z</time>
      </trkpt>
      <trkpt lat="42.44369" lon="0.04656">
        <ele>688.3</ele>
        <time>2016-07-31T07:51:15Z</time>
      </trkpt>
      <trkpt lat="42.44366" lon="0.04655">
        <ele>688.7</ele>
        <time>2016-07-31T07:51:16Z</time>
      </trkpt>
      <trkpt lat="42.44363" lon="0.04653">
        <ele>689.2</ele>
        <time>2016-07-31T07:51:17Z</time>
      </trkpt>
      <trkpt lat="42.4436" lon="0.04652">
        <ele>689.8</ele>
        <time>2016-07-31T07:51:18Z</time>
      </trkpt>
      <trkpt lat="42.44357" lon="0.0465">
        <ele>690.3</ele>
        <time>2016-07-31T07:51:19Z</time>
      </trkpt>
      <trkpt lat="42.44354" lon="0.04649">
        <ele>690.9</ele>
        <time>2016-07-31T07:51:20Z</time>
      </trkpt>
      <trkpt lat="42.44351" lon="0.04647">
        <ele>691.3</ele>
        <time>2016-07-31T07:51:21Z</time>
      </trkpt>
      <trkpt lat="42.44348" lon="0.04646">
        <ele>691.6</ele>
        <time>2016-07-31T07:51:22Z</time>
      </trkpt>
      <trkpt lat="42.44346" lon="0.04646">
        <ele>691.8</ele>
        <time>2016-07-31T07:51:23Z</time>
      </trkpt>
      <trkpt lat="42.44343" lon="0.04645">
        <ele>692.1</ele>
        <time>2016-07-31T07:51:24Z</time>
      </trkpt>
      <trkpt lat="42.4434" lon="0.04644">
        <ele>692.3</ele>
        <time>2016-07-31T07:51:25Z</time>
      </trkpt>
      <trkpt lat="42.44337" lon="0.04643">
        <ele>692.5</ele>
        <time>2016-07-31T07:51:26Z</time>
      </trkpt>
      <trkpt lat="42.44335" lon="0.04642">
        <ele>692.9</ele>
        <time>2016-07-31T07:51:27Z</time>
      </trkpt>
      <trkpt lat="42.44332" lon="0.04641">
        <ele>693.3</ele>
        <time>2016-07-31T07:51:28Z</time>
      </trkpt>
      <trkpt lat="42.44329" lon="0.0464">
        <ele>693.6</ele>
        <time>2016-07-31T07:51:29Z</time>
      </trkpt>
      <trkpt lat="42.44327" lon="0.0464">
        <ele>693.8</ele>
        <time>2016-07-31T07:51:30Z</time>
      </trkpt>
      <trkpt lat="42.44324" lon="0.04639">
        <ele>693.8</ele>
        <time>2016-07-31T07:51:31Z</time>
      </trkpt>
      <trkpt lat="42.44321" lon="0.04639">
        <ele>693.8</ele>
        <time>2016-07-31T07:51:32Z</time>
      </trkpt>
      <trkpt lat="42.44318" lon="0.0464">
        <ele>693.7</ele>
        <time>2016-07-31T07:51:33Z</time>
      </trkpt>
      <trkpt lat="42.44315" lon="0.04639">
        <ele>693.8</ele>
        <time>2016-07-31T07:51:34Z</time>
      </trkpt>
      <trkpt lat="42.44312" lon="0.04639">
        <ele>694</ele>
        <time>2016-07-31T07:51:35Z</time>
      </trkpt>
      <trkpt lat="42.44309" lon="0.04638">
        <ele>694.2</ele>
        <time>2016-07-31T07:51:36Z</time>
      </trkpt>
      <trkpt lat="42.44306" lon="0.04637">
        <ele>694.5</ele>
        <time>2016-07-31T07:51:37Z</time>
      </trkpt>
      <trkpt lat="42.44303" lon="0.04636">
        <ele>694.9</ele>
        <time>2016-07-31T07:51:38Z</time>
      </trkpt>
      <trkpt lat="42.443" lon="0.04634">
        <ele>695.3</ele>
        <time>2016-07-31T07:51:39Z</time>
      </trkpt>
      <trkpt lat="42.44298" lon="0.04633">
        <ele>695.8</ele>
        <time>2016-07-31T07:51:40Z</time>
      </trkpt>
      <trkpt lat="42.44295" lon="0.04631">
        <ele>696.2</ele>
        <time>2016-07-31T07:51:41Z</time>
      </trkpt>
      <trkpt lat="42.44292" lon="0.0463">
        <ele>696.5</ele>
        <time>2016-07-31T07:51:42Z</time>
      </trkpt>
      <trkpt lat="42.44289" lon="0.04629">
        <ele>697.1</ele>
        <time>2016-07-31T07:51:43Z</time>
      </trkpt>
      <trkpt lat="42.44286" lon="0.04628">
        <ele>697.7</ele>
        <time>2016-07-31T07:51:44Z</time>
      </trkpt>
      <trkpt lat="42.44284" lon="0.04627">
        <ele>698.3</ele>
        <time>2016-07-31T07:51:45Z</time>
      </trkpt>
      <trkpt lat="42.44281" lon="0.04627">
        <ele>698.9</ele>
        <time>2016-07-31T07:51:46Z</time>
      </trkpt>
      <trkpt lat="42.44276" lon="0.04625">
        <ele>699.8</ele>
        <time>2016-07-31T07:51:48Z</time>
      </trkpt>
      <trkpt lat="42.44271" lon="0.04624">
        <ele>700.8</ele>
        <time>2016-07-31T07:51:50Z</time>
      </trkpt>
      <trkpt lat="42.44266" lon="0.04623">
        <ele>702</ele>
        <time>2016-07-31T07:51:52Z</time>
      </trkpt>
      <trkpt lat="42.44261" lon="0.0462">
        <ele>703.3</ele>
        <time>2016-07-31T07:51:54Z</time>
      </trkpt>
      <trkpt lat="42.44256" lon="0.04618">
        <ele>704.5</ele>
        <time>2016-07-31T07:51:56Z</time>
      </trkpt>
      <trkpt lat="42.44251" lon="0.04617">
        <ele>705.5</ele>
        <time>2016-07-31T07:51:58Z</time>
      </trkpt>
      <trkpt lat="42.44246" lon="0.04616">
        <ele>706.4</ele>
        <time>2016-07-31T07:52:00Z</time>
      </trkpt>
      <trkpt lat="42.44241" lon="0.04614">
        <ele>707.5</ele>
        <time>2016-07-31T07:52:02Z</time>
      </trkpt>
      <trkpt lat="42.44236" lon="0.04612">
        <ele>708.8</ele>
        <time>2016-07-31T07:52:04Z</time>
      </trkpt>
      <trkpt lat="42.44232" lon="0.04609">
        <ele>710.1</ele>
        <time>2016-07-31T07:52:06Z</time>
      </trkpt>
      <trkpt lat="42.44227" lon="0.04606">
        <ele>711.4</ele>
        <time>2016-07-31T07:52:08Z</time>
      </trkpt>
      <trkpt lat="42.44222" lon="0.04605">
        <ele>712.4</ele>
        <time>2016-07-31T07:52:10Z</time>
      </trkpt>
      <trkpt lat="42.44216" lon="0.04603">
        <ele>713.4</ele>
        <time>2016-07-31T07:52:12Z</time>
      </trkpt>
      <trkpt lat="42.44211" lon="0.04601">
        <ele>714.3</ele>
        <time>2016-07-31T07:52:14Z</time>
      </trkpt>
      <trkpt lat="42.44206" lon="0.046">
        <ele>714.8</ele>
        <time>2016-07-31T07:52:16Z</time>
      </trkpt>
      <trkpt lat="42.44201" lon="0.046">
        <ele>714.8</ele>
        <time>2016-07-31T07:52:18Z</time>
      </trkpt>
      <trkpt lat="42.44195" lon="0.04601">
        <ele>714.4</ele>
        <time>2016-07-31T07:52:20Z</time>
      </trkpt>
      <trkpt lat="42.44193" lon="0.04602">
        <ele>714.1</ele>
        <time>2016-07-31T07:52:21Z</time>
      </trkpt>
      <trkpt lat="42.4419" lon="0.04604">
        <ele>713.7</ele>
        <time>2016-07-31T07:52:22Z</time>
      </trkpt>
      <trkpt lat="42.44188" lon="0.04605">
        <ele>713.3</ele>
        <time>2016-07-31T07:52:23Z</time>
      </trkpt>
      <trkpt lat="42.44185" lon="0.04607">
        <ele>712.8</ele>
        <time>2016-07-31T07:52:24Z</time>
      </trkpt>
      <trkpt lat="42.44183" lon="0.04609">
        <ele>712.3</ele>
        <time>2016-07-31T07:52:25Z</time>
      </trkpt>
      <trkpt lat="42.4418" lon="0.0461">
        <ele>711.8</ele>
        <time>2016-07-31T07:52:26Z</time>
      </trkpt>
      <trkpt lat="42.44178" lon="0.04612">
        <ele>711.4</ele>
        <time>2016-07-31T07:52:27Z</time>
      </trkpt>
      <trkpt lat="42.44173" lon="0.04615">
        <ele>710.7</ele>
        <time>2016-07-31T07:52:29Z</time>
      </trkpt>
      <trkpt lat="42.44168" lon="0.04618">
        <ele>709.8</ele>
        <time>2016-07-31T07:52:31Z</time>
      </trkpt>
      <trkpt lat="42.44164" lon="0.04622">
        <ele>708.8</ele>
        <time>2016-07-31T07:52:33Z</time>
      </trkpt>
      <trkpt lat="42.4416" lon="0.04625">
        <ele>708</ele>
        <time>2016-07-31T07:52:35Z</time>
      </trkpt>
      <trkpt lat="42.44156" lon="0.04629">
        <ele>707.9</ele>
        <time>2016-07-31T07:52:37Z</time>
      </trkpt>
      <trkpt lat="42.44151" lon="0.04631">
        <ele>707.9</ele>
        <time>2016-07-31T07:52:39Z</time>
      </trkpt>
      <trkpt lat="42.44147" lon="0.04633">
        <ele>708</ele>
        <time>2016-07-31T07:52:41Z</time>
      </trkpt>
      <trkpt lat="42.44142" lon="0.04634">
        <ele>708.1</ele>
        <time>2016-07-31T07:52:43Z</time>
      </trkpt>
      <trkpt lat="42.44137" lon="0.04633">
        <ele>708.2</ele>
        <time>2016-07-31T07:52:45Z</time>
      </trkpt>
      <trkpt lat="42.44133" lon="0.04631">
        <ele>708.2</ele>
        <time>2016-07-31T07:52:47Z</time>
      </trkpt>
      <trkpt lat="42.44128" lon="0.0463">
        <ele>708.2</ele>
        <time>2016-07-31T07:52:49Z</time>
      </trkpt>
      <trkpt lat="42.44123" lon="0.04628">
        <ele>708.7</ele>
        <time>2016-07-31T07:52:51Z</time>
      </trkpt>
      <trkpt lat="42.44119" lon="0.04626">
        <ele>709.9</ele>
        <time>2016-07-31T07:52:53Z</time>
      </trkpt>
      <trkpt lat="42.44114" lon="0.04624">
        <ele>711.4</ele>
        <time>2016-07-31T07:52:55Z</time>
      </trkpt>
      <trkpt lat="42.44109" lon="0.04623">
        <ele>712.9</ele>
        <time>2016-07-31T07:52:57Z</time>
      </trkpt>
      <trkpt lat="42.44105" lon="0.04621">
        <ele>714.5</ele>
        <time>2016-07-31T07:52:59Z</time>
      </trkpt>
      <trkpt lat="42.441" lon="0.04619">
        <ele>716</ele>
        <time>2016-07-31T07:53:01Z</time>
      </trkpt>
      <trkpt lat="42.44096" lon="0.04616">
        <ele>717.5</ele>
        <time>2016-07-31T07:53:03Z</time>
      </trkpt>
      <trkpt lat="42.44091" lon="0.04614">
        <ele>718.9</ele>
        <time>2016-07-31T07:53:05Z</time>
      </trkpt>
      <trkpt lat="42.44086" lon="0.04611">
        <ele>720.3</ele>
        <time>2016-07-31T07:53:07Z</time>
      </trkpt>
      <trkpt lat="42.44082" lon="0.04609">
        <ele>721.4</ele>
        <time>2016-07-31T07:53:09Z</time>
      </trkpt>
      <trkpt lat="42.44077" lon="0.04608">
        <ele>722.6</ele>
        <time>2016-07-31T07:53:11Z</time>
      </trkpt>
      <trkpt lat="42.44072" lon="0.04606">
        <ele>723.6</ele>
        <time>2016-07-31T07:53:13Z</time>
      </trkpt>
      <trkpt lat="42.44068" lon="0.04604">
        <ele>724.7</ele>
        <time>2016-07-31T07:53:15Z</time>
      </trkpt>
      <trkpt lat="42.44063" lon="0.04603">
        <ele>725.6</ele>
        <time>2016-07-31T07:53:17Z</time>
      </trkpt>
      <trkpt lat="42.44058" lon="0.04601">
        <ele>726.5</ele>
        <time>2016-07-31T07:53:19Z</time>
      </trkpt>
      <trkpt lat="42.44054" lon="0.04599">
        <ele>727.2</ele>
        <time>2016-07-31T07:53:21Z</time>
      </trkpt>
      <trkpt lat="42.44049" lon="0.04597">
        <ele>727.9</ele>
        <time>2016-07-31T07:53:23Z</time>
      </trkpt>
      <trkpt lat="42.44045" lon="0.04595">
        <ele>728.6</ele>
        <time>2016-07-31T07:53:25Z</time>
      </trkpt>
      <trkpt lat="42.4404" lon="0.04593">
        <ele>729.5</ele>
        <time>2016-07-31T07:53:27Z</time>
      </trkpt>
      <trkpt lat="42.44035" lon="0.0459">
        <ele>731.1</ele>
        <time>2016-07-31T07:53:29Z</time>
      </trkpt>
      <trkpt lat="42.44031" lon="0.04588">
        <ele>732.5</ele>
        <time>2016-07-31T07:53:31Z</time>
      </trkpt>
      <trkpt lat="42.44027" lon="0.04585">
        <ele>733.8</ele>
        <time>2016-07-31T07:53:33Z</time>
      </trkpt>
      <trkpt lat="42.44022" lon="0.04582">
        <ele>735</ele>
        <time>2016-07-31T07:53:35Z</time>
      </trkpt>
      <trkpt lat="42.44018" lon="0.04578">
        <ele>736.1</ele>
        <time>2016-07-31T07:53:37Z</time>
      </trkpt>
      <trkpt lat="42.44015" lon="0.04574">
        <ele>736.7</ele>
        <time>2016-07-31T07:53:39Z</time>
      </trkpt>
      <trkpt lat="42.44012" lon="0.04568">
        <ele>736.9</ele>
        <time>2016-07-31T07:53:41Z</time>
      </trkpt>
      <trkpt lat="42.44009" lon="0.04562">
        <ele>736.9</ele>
        <time>2016-07-31T07:53:43Z</time>
      </trkpt>
      <trkpt lat="42.44007" lon="0.04556">
        <ele>736.6</ele>
        <time>2016-07-31T07:53:45Z</time>
      </trkpt>
      <trkpt lat="42.44006" lon="0.04549">
        <ele>736</ele>
        <time>2016-07-31T07:53:47Z</time>
      </trkpt>
      <trkpt lat="42.44005" lon="0.04545">
        <ele>735.6</ele>
        <time>2016-07-31T07:53:48Z</time>
      </trkpt>
      <trkpt lat="42.44005" lon="0.04541">
        <ele>735.1</ele>
        <time>2016-07-31T07:53:49Z</time>
      </trkpt>
      <trkpt lat="42.44005" lon="0.04538">
        <ele>735.4</ele>
        <time>2016-07-31T07:53:50Z</time>
      </trkpt>
      <trkpt lat="42.44005" lon="0.04534">
        <ele>735.6</ele>
        <time>2016-07-31T07:53:51Z</time>
      </trkpt>
      <trkpt lat="42.44006" lon="0.0453">
        <ele>735.8</ele>
        <time>2016-07-31T07:53:52Z</time>
      </trkpt>
      <trkpt lat="42.44007" lon="0.04526">
        <ele>735.8</ele>
        <time>2016-07-31T07:53:53Z</time>
      </trkpt>
      <trkpt lat="42.44008" lon="0.04523">
        <ele>735.7</ele>
        <time>2016-07-31T07:53:54Z</time>
      </trkpt>
      <trkpt lat="42.44011" lon="0.0452">
        <ele>735.6</ele>
        <time>2016-07-31T07:53:55Z</time>
      </trkpt>
      <trkpt lat="42.44013" lon="0.04517">
        <ele>735.4</ele>
        <time>2016-07-31T07:53:56Z</time>
      </trkpt>
      <trkpt lat="42.44016" lon="0.04515">
        <ele>735.2</ele>
        <time>2016-07-31T07:53:57Z</time>
      </trkpt>
      <trkpt lat="42.44019" lon="0.04513">
        <ele>734.9</ele>
        <time>2016-07-31T07:53:58Z</time>
      </trkpt>
      <trkpt lat="42.44022" lon="0.04512">
        <ele>734.7</ele>
        <time>2016-07-31T07:53:59Z</time>
      </trkpt>
      <trkpt lat="42.44026" lon="0.04511">
        <ele>734.4</ele>
        <time>2016-07-31T07:54:00Z</time>
      </trkpt>
      <trkpt lat="42.44029" lon="0.0451">
        <ele>734.1</ele>
        <time>2016-07-31T07:54:01Z</time>
      </trkpt>
      <trkpt lat="42.44032" lon="0.0451">
        <ele>733.8</ele>
        <time>2016-07-31T07:54:02Z</time>
      </trkpt>
      <trkpt lat="42.44035" lon="0.0451">
        <ele>733.4</ele>
        <time>2016-07-31T07:54:03Z</time>
      </trkpt>
      <trkpt lat="42.44038" lon="0.0451">
        <ele>732.9</ele>
        <time>2016-07-31T07:54:04Z</time>
      </trkpt>
      <trkpt lat="42.44041" lon="0.04511">
        <ele>732.3</ele>
        <time>2016-07-31T07:54:05Z</time>
      </trkpt>
      <trkpt lat="42.44044" lon="0.04512">
        <ele>732</ele>
        <time>2016-07-31T07:54:06Z</time>
      </trkpt>
      <trkpt lat="42.44047" lon="0.04514">
        <ele>731.7</ele>
        <time>2016-07-31T07:54:07Z</time>
      </trkpt>
      <trkpt lat="42.44049" lon="0.04515">
        <ele>731.5</ele>
        <time>2016-07-31T07:54:08Z</time>
      </trkpt>
      <trkpt lat="42.44052" lon="0.04517">
        <ele>731.2</ele>
        <time>2016-07-31T07:54:09Z</time>
      </trkpt>
      <trkpt lat="42.44054" lon="0.04518">
        <ele>731</ele>
        <time>2016-07-31T07:54:10Z</time>
      </trkpt>
      <trkpt lat="42.44059" lon="0.04521">
        <ele>730.5</ele>
        <time>2016-07-31T07:54:12Z</time>
      </trkpt>
      <trkpt lat="42.44064" lon="0.04523">
        <ele>730.1</ele>
        <time>2016-07-31T07:54:14Z</time>
      </trkpt>
      <trkpt lat="42.44069" lon="0.04525">
        <ele>729.7</ele>
        <time>2016-07-31T07:54:16Z</time>
      </trkpt>
      <trkpt lat="42.44073" lon="0.04527">
        <ele>729.4</ele>
        <time>2016-07-31T07:54:18Z</time>
      </trkpt>
      <trkpt lat="42.44078" lon="0.04528">
        <ele>729.3</ele>
        <time>2016-07-31T07:54:20Z</time>
      </trkpt>
      <trkpt lat="42.44083" lon="0.04528">
        <ele>729.7</ele>
        <time>2016-07-31T07:54:22Z</time>
      </trkpt>
      <trkpt lat="42.44088" lon="0.04527">
        <ele>730.3</ele>
        <time>2016-07-31T07:54:24Z</time>
      </trkpt>
      <trkpt lat="42.44093" lon="0.04526">
        <ele>730.9</ele>
        <time>2016-07-31T07:54:26Z</time>
      </trkpt>
      <trkpt lat="42.44098" lon="0.04524">
        <ele>731.6</ele>
        <time>2016-07-31T07:54:28Z</time>
      </trkpt>
      <trkpt lat="42.44103" lon="0.04523">
        <ele>732.2</ele>
        <time>2016-07-31T07:54:30Z</time>
      </trkpt>
      <trkpt lat="42.44108" lon="0.04523">
        <ele>732.7</ele>
        <time>2016-07-31T07:54:32Z</time>
      </trkpt>
      <trkpt lat="42.44113" lon="0.04521">
        <ele>733.4</ele>
        <time>2016-07-31T07:54:34Z</time>
      </trkpt>
      <trkpt lat="42.44117" lon="0.04519">
        <ele>734.4</ele>
        <time>2016-07-31T07:54:36Z</time>
      </trkpt>
      <trkpt lat="42.44122" lon="0.04517">
        <ele>735.3</ele>
        <time>2016-07-31T07:54:38Z</time>
      </trkpt>
      <trkpt lat="42.44127" lon="0.04516">
        <ele>736.1</ele>
        <time>2016-07-31T07:54:40Z</time>
      </trkpt>
      <trkpt lat="42.44132" lon="0.04514">
        <ele>736.8</ele>
        <time>2016-07-31T07:54:42Z</time>
      </trkpt>
      <trkpt lat="42.44137" lon="0.04513">
        <ele>737.4</ele>
        <time>2016-07-31T07:54:44Z</time>
      </trkpt>
      <trkpt lat="42.44142" lon="0.04512">
        <ele>738.2</ele>
        <time>2016-07-31T07:54:46Z</time>
      </trkpt>
      <trkpt lat="42.44147" lon="0.0451">
        <ele>738.9</ele>
        <time>2016-07-31T07:54:48Z</time>
      </trkpt>
      <trkpt lat="42.4415" lon="0.04509">
        <ele>739.3</ele>
        <time>2016-07-31T07:54:49Z</time>
      </trkpt>
      <trkpt lat="42.44155" lon="0.04508">
        <ele>740.1</ele>
        <time>2016-07-31T07:54:51Z</time>
      </trkpt>
      <trkpt lat="42.4416" lon="0.04506">
        <ele>740.9</ele>
        <time>2016-07-31T07:54:53Z</time>
      </trkpt>
      <trkpt lat="42.44164" lon="0.04504">
        <ele>741.6</ele>
        <time>2016-07-31T07:54:55Z</time>
      </trkpt>
      <trkpt lat="42.44169" lon="0.04503">
        <ele>742.4</ele>
        <time>2016-07-31T07:54:57Z</time>
      </trkpt>
      <trkpt lat="42.44174" lon="0.04501">
        <ele>743.3</ele>
        <time>2016-07-31T07:54:59Z</time>
      </trkpt>
      <trkpt lat="42.44178" lon="0.04499">
        <ele>744.1</ele>
        <time>2016-07-31T07:55:01Z</time>
      </trkpt>
      <trkpt lat="42.44183" lon="0.04497">
        <ele>744.8</ele>
        <time>2016-07-31T07:55:03Z</time>
      </trkpt>
      <trkpt lat="42.44188" lon="0.04495">
        <ele>745.7</ele>
        <time>2016-07-31T07:55:05Z</time>
      </trkpt>
      <trkpt lat="42.44193" lon="0.04494">
        <ele>746.5</ele>
        <time>2016-07-31T07:55:07Z</time>
      </trkpt>
      <trkpt lat="42.44197" lon="0.04492">
        <ele>747.1</ele>
        <time>2016-07-31T07:55:09Z</time>
      </trkpt>
      <trkpt lat="42.44202" lon="0.04491">
        <ele>747.9</ele>
        <time>2016-07-31T07:55:11Z</time>
      </trkpt>
      <trkpt lat="42.44207" lon="0.04489">
        <ele>748.7</ele>
        <time>2016-07-31T07:55:13Z</time>
      </trkpt>
      <trkpt lat="42.44211" lon="0.04487">
        <ele>749.2</ele>
        <time>2016-07-31T07:55:15Z</time>
      </trkpt>
      <trkpt lat="42.44216" lon="0.04486">
        <ele>749.6</ele>
        <time>2016-07-31T07:55:17Z</time>
      </trkpt>
      <trkpt lat="42.4422" lon="0.04484">
        <ele>750.1</ele>
        <time>2016-07-31T07:55:19Z</time>
      </trkpt>
      <trkpt lat="42.44224" lon="0.04483">
        <ele>750.6</ele>
        <time>2016-07-31T07:55:21Z</time>
      </trkpt>
      <trkpt lat="42.44229" lon="0.04481">
        <ele>751</ele>
        <time>2016-07-31T07:55:23Z</time>
      </trkpt>
      <trkpt lat="42.44233" lon="0.0448">
        <ele>751.5</ele>
        <time>2016-07-31T07:55:25Z</time>
      </trkpt>
      <trkpt lat="42.44238" lon="0.04478">
        <ele>752.1</ele>
        <time>2016-07-31T07:55:27Z</time>
      </trkpt>
      <trkpt lat="42.44243" lon="0.04476">
        <ele>752.5</ele>
        <time>2016-07-31T07:55:29Z</time>
      </trkpt>
      <trkpt lat="42.44248" lon="0.04476">
        <ele>752.7</ele>
        <time>2016-07-31T07:55:31Z</time>
      </trkpt>
      <trkpt lat="42.44253" lon="0.04476">
        <ele>752.7</ele>
        <time>2016-07-31T07:55:33Z</time>
      </trkpt>
      <trkpt lat="42.44257" lon="0.04476">
        <ele>752.5</ele>
        <time>2016-07-31T07:55:35Z</time>
      </trkpt>
      <trkpt lat="42.4426" lon="0.04476">
        <ele>752.3</ele>
        <time>2016-07-31T07:55:36Z</time>
      </trkpt>
      <trkpt lat="42.44262" lon="0.04477">
        <ele>752.1</ele>
        <time>2016-07-31T07:55:37Z</time>
      </trkpt>
      <trkpt lat="42.44268" lon="0.04478">
        <ele>751.8</ele>
        <time>2016-07-31T07:55:39Z</time>
      </trkpt>
      <trkpt lat="42.44272" lon="0.04478">
        <ele>751.7</ele>
        <time>2016-07-31T07:55:41Z</time>
      </trkpt>
      <trkpt lat="42.44277" lon="0.04478">
        <ele>751.5</ele>
        <time>2016-07-31T07:55:43Z</time>
      </trkpt>
      <trkpt lat="42.44281" lon="0.04479">
        <ele>751.3</ele>
        <time>2016-07-31T07:55:45Z</time>
      </trkpt>
      <trkpt lat="42.44286" lon="0.04479">
        <ele>751.1</ele>
        <time>2016-07-31T07:55:47Z</time>
      </trkpt>
      <trkpt lat="42.44289" lon="0.0448">
        <ele>750.9</ele>
        <time>2016-07-31T07:55:48Z</time>
      </trkpt>
      <trkpt lat="42.44294" lon="0.0448">
        <ele>750.8</ele>
        <time>2016-07-31T07:55:50Z</time>
      </trkpt>
      <trkpt lat="42.44299" lon="0.0448">
        <ele>750.9</ele>
        <time>2016-07-31T07:55:52Z</time>
      </trkpt>
      <trkpt lat="42.44304" lon="0.0448">
        <ele>751.2</ele>
        <time>2016-07-31T07:55:54Z</time>
      </trkpt>
      <trkpt lat="42.44309" lon="0.0448">
        <ele>751.6</ele>
        <time>2016-07-31T07:55:56Z</time>
      </trkpt>
      <trkpt lat="42.44314" lon="0.04479">
        <ele>751.9</ele>
        <time>2016-07-31T07:55:58Z</time>
      </trkpt>
      <trkpt lat="42.44319" lon="0.04479">
        <ele>752.2</ele>
        <time>2016-07-31T07:56:00Z</time>
      </trkpt>
      <trkpt lat="42.44324" lon="0.04479">
        <ele>752.6</ele>
        <time>2016-07-31T07:56:02Z</time>
      </trkpt>
      <trkpt lat="42.44329" lon="0.04478">
        <ele>753</ele>
        <time>2016-07-31T07:56:04Z</time>
      </trkpt>
      <trkpt lat="42.44334" lon="0.04477">
        <ele>753.6</ele>
        <time>2016-07-31T07:56:06Z</time>
      </trkpt>
      <trkpt lat="42.44339" lon="0.04476">
        <ele>754.3</ele>
        <time>2016-07-31T07:56:08Z</time>
      </trkpt>
      <trkpt lat="42.44343" lon="0.04474">
        <ele>755</ele>
        <time>2016-07-31T07:56:10Z</time>
      </trkpt>
      <trkpt lat="42.44348" lon="0.04473">
        <ele>755.6</ele>
        <time>2016-07-31T07:56:12Z</time>
      </trkpt>
      <trkpt lat="42.44353" lon="0.04473">
        <ele>756.1</ele>
        <time>2016-07-31T07:56:14Z</time>
      </trkpt>
      <trkpt lat="42.44357" lon="0.04472">
        <ele>756.5</ele>
        <time>2016-07-31T07:56:16Z</time>
      </trkpt>
      <trkpt lat="42.44363" lon="0.04471">
        <ele>757.1</ele>
        <time>2016-07-31T07:56:18Z</time>
      </trkpt>
      <trkpt lat="42.44368" lon="0.04471">
        <ele>757.5</ele>
        <time>2016-07-31T07:56:20Z</time>
      </trkpt>
      <trkpt lat="42.44373" lon="0.0447">
        <ele>758</ele>
        <time>2016-07-31T07:56:22Z</time>
      </trkpt>
      <trkpt lat="42.44378" lon="0.0447">
        <ele>758</ele>
        <time>2016-07-31T07:56:24Z</time>
      </trkpt>
      <trkpt lat="42.44383" lon="0.0447">
        <ele>757.9</ele>
        <time>2016-07-31T07:56:26Z</time>
      </trkpt>
      <trkpt lat="42.44388" lon="0.0447">
        <ele>757.9</ele>
        <time>2016-07-31T07:56:28Z</time>
      </trkpt>
      <trkpt lat="42.44392" lon="0.0447">
        <ele>757.7</ele>
        <time>2016-07-31T07:56:30Z</time>
      </trkpt>
      <trkpt lat="42.44397" lon="0.0447">
        <ele>757.6</ele>
        <time>2016-07-31T07:56:32Z</time>
      </trkpt>
      <trkpt lat="42.44402" lon="0.0447">
        <ele>757.4</ele>
        <time>2016-07-31T07:56:34Z</time>
      </trkpt>
      <trkpt lat="42.44407" lon="0.04471">
        <ele>756.9</ele>
        <time>2016-07-31T07:56:36Z</time>
      </trkpt>
      <trkpt lat="42.44412" lon="0.04471">
        <ele>756.8</ele>
        <time>2016-07-31T07:56:38Z</time>
      </trkpt>
      <trkpt lat="42.44415" lon="0.0447">
        <ele>756.8</ele>
        <time>2016-07-31T07:56:39Z</time>
      </trkpt>
      <trkpt lat="42.4442" lon="0.0447">
        <ele>757</ele>
        <time>2016-07-31T07:56:41Z</time>
      </trkpt>
      <trkpt lat="42.44425" lon="0.04468">
        <ele>757.4</ele>
        <time>2016-07-31T07:56:43Z</time>
      </trkpt>
      <trkpt lat="42.44428" lon="0.04468">
        <ele>757.5</ele>
        <time>2016-07-31T07:56:44Z</time>
      </trkpt>
      <trkpt lat="42.44431" lon="0.04467">
        <ele>757.8</ele>
        <time>2016-07-31T07:56:45Z</time>
      </trkpt>
      <trkpt lat="42.44434" lon="0.04465">
        <ele>758.2</ele>
        <time>2016-07-31T07:56:46Z</time>
      </trkpt>
      <trkpt lat="42.44436" lon="0.04464">
        <ele>758.6</ele>
        <time>2016-07-31T07:56:47Z</time>
      </trkpt>
      <trkpt lat="42.44439" lon="0.04463">
        <ele>759.1</ele>
        <time>2016-07-31T07:56:48Z</time>
      </trkpt>
      <trkpt lat="42.44443" lon="0.04459">
        <ele>760.4</ele>
        <time>2016-07-31T07:56:50Z</time>
      </trkpt>
      <trkpt lat="42.44446" lon="0.04456">
        <ele>761.1</ele>
        <time>2016-07-31T07:56:51Z</time>
      </trkpt>
      <trkpt lat="42.44448" lon="0.04453">
        <ele>761.7</ele>
        <time>2016-07-31T07:56:52Z</time>
      </trkpt>
      <trkpt lat="42.44451" lon="0.04448">
        <ele>763</ele>
        <time>2016-07-31T07:56:54Z</time>
      </trkpt>
      <trkpt lat="42.44453" lon="0.04442">
        <ele>764.7</ele>
        <time>2016-07-31T07:56:56Z</time>
      </trkpt>
      <trkpt lat="42.44453" lon="0.04435">
        <ele>766.5</ele>
        <time>2016-07-31T07:56:58Z</time>
      </trkpt>
      <trkpt lat="42.44453" lon="0.04428">
        <ele>768.3</ele>
        <time>2016-07-31T07:57:00Z</time>
      </trkpt>
      <trkpt lat="42.44452" lon="0.04422">
        <ele>770</ele>
        <time>2016-07-31T07:57:02Z</time>
      </trkpt>
      <trkpt lat="42.44449" lon="0.04416">
        <ele>771.7</ele>
        <time>2016-07-31T07:57:04Z</time>
      </trkpt>
      <trkpt lat="42.44445" lon="0.04411">
        <ele>773.3</ele>
        <time>2016-07-31T07:57:06Z</time>
      </trkpt>
      <trkpt lat="42.44444" lon="0.04408">
        <ele>774.2</ele>
        <time>2016-07-31T07:57:07Z</time>
      </trkpt>
      <trkpt lat="42.4444" lon="0.04404">
        <ele>775.6</ele>
        <time>2016-07-31T07:57:09Z</time>
      </trkpt>
      <trkpt lat="42.44435" lon="0.04401">
        <ele>776.6</ele>
        <time>2016-07-31T07:57:11Z</time>
      </trkpt>
      <trkpt lat="42.4443" lon="0.04399">
        <ele>777.3</ele>
        <time>2016-07-31T07:57:13Z</time>
      </trkpt>
      <trkpt lat="42.44428" lon="0.04399">
        <ele>777.6</ele>
        <time>2016-07-31T07:57:14Z</time>
      </trkpt>
      <trkpt lat="42.44425" lon="0.04399">
        <ele>777.7</ele>
        <time>2016-07-31T07:57:15Z</time>
      </trkpt>
      <trkpt lat="42.44422" lon="0.044">
        <ele>777.6</ele>
        <time>2016-07-31T07:57:16Z</time>
      </trkpt>
      <trkpt lat="42.44419" lon="0.04401">
        <ele>777.4</ele>
        <time>2016-07-31T07:57:17Z</time>
      </trkpt>
      <trkpt lat="42.44414" lon="0.04405">
        <ele>776.8</ele>
        <time>2016-07-31T07:57:19Z</time>
      </trkpt>
      <trkpt lat="42.44412" lon="0.04407">
        <ele>776.4</ele>
        <time>2016-07-31T07:57:20Z</time>
      </trkpt>
      <trkpt lat="42.44409" lon="0.04409">
        <ele>776</ele>
        <time>2016-07-31T07:57:21Z</time>
      </trkpt>
      <trkpt lat="42.44407" lon="0.04411">
        <ele>775.6</ele>
        <time>2016-07-31T07:57:22Z</time>
      </trkpt>
      <trkpt lat="42.44402" lon="0.04414">
        <ele>774.7</ele>
        <time>2016-07-31T07:57:24Z</time>
      </trkpt>
      <trkpt lat="42.44397" lon="0.04418">
        <ele>773.8</ele>
        <time>2016-07-31T07:57:26Z</time>
      </trkpt>
      <trkpt lat="42.44395" lon="0.0442">
        <ele>773.4</ele>
        <time>2016-07-31T07:57:27Z</time>
      </trkpt>
      <trkpt lat="42.44393" lon="0.04422">
        <ele>773</ele>
        <time>2016-07-31T07:57:28Z</time>
      </trkpt>
      <trkpt lat="42.44388" lon="0.04425">
        <ele>772.3</ele>
        <time>2016-07-31T07:57:30Z</time>
      </trkpt>
      <trkpt lat="42.44383" lon="0.04428">
        <ele>771.6</ele>
        <time>2016-07-31T07:57:32Z</time>
      </trkpt>
      <trkpt lat="42.44378" lon="0.0443">
        <ele>771.3</ele>
        <time>2016-07-31T07:57:34Z</time>
      </trkpt>
      <trkpt lat="42.44373" lon="0.04431">
        <ele>771.1</ele>
        <time>2016-07-31T07:57:36Z</time>
      </trkpt>
      <trkpt lat="42.44368" lon="0.04432">
        <ele>770.7</ele>
        <time>2016-07-31T07:57:38Z</time>
      </trkpt>
      <trkpt lat="42.44362" lon="0.0443">
        <ele>770.8</ele>
        <time>2016-07-31T07:57:40Z</time>
      </trkpt>
      <trkpt lat="42.4436" lon="0.04429">
        <ele>771.1</ele>
        <time>2016-07-31T07:57:41Z</time>
      </trkpt>
      <trkpt lat="42.44357" lon="0.04428">
        <ele>771.4</ele>
        <time>2016-07-31T07:57:42Z</time>
      </trkpt>
      <trkpt lat="42.44354" lon="0.04426">
        <ele>771.7</ele>
        <time>2016-07-31T07:57:43Z</time>
      </trkpt>
      <trkpt lat="42.44352" lon="0.04425">
        <ele>772</ele>
        <time>2016-07-31T07:57:44Z</time>
      </trkpt>
      <trkpt lat="42.44349" lon="0.04423">
        <ele>772.3</ele>
        <time>2016-07-31T07:57:45Z</time>
      </trkpt>
      <trkpt lat="42.44344" lon="0.04421">
        <ele>772.7</ele>
        <time>2016-07-31T07:57:47Z</time>
      </trkpt>
      <trkpt lat="42.44339" lon="0.0442">
        <ele>772.9</ele>
        <time>2016-07-31T07:57:49Z</time>
      </trkpt>
      <trkpt lat="42.44334" lon="0.04418">
        <ele>773.3</ele>
        <time>2016-07-31T07:57:51Z</time>
      </trkpt>
      <trkpt lat="42.44329" lon="0.04416">
        <ele>773.7</ele>
        <time>2016-07-31T07:57:53Z</time>
      </trkpt>
      <trkpt lat="42.44324" lon="0.04415">
        <ele>774</ele>
        <time>2016-07-31T07:57:55Z</time>
      </trkpt>
      <trkpt lat="42.44319" lon="0.04413">
        <ele>774.4</ele>
        <time>2016-07-31T07:57:57Z</time>
      </trkpt>
      <trkpt lat="42.44317" lon="0.04412">
        <ele>774.6</ele>
        <time>2016-07-31T07:57:58Z</time>
      </trkpt>
      <trkpt lat="42.44312" lon="0.0441">
        <ele>774.9</ele>
        <time>2016-07-31T07:58:00Z</time>
      </trkpt>
      <trkpt lat="42.44306" lon="0.04409">
        <ele>775.3</ele>
        <time>2016-07-31T07:58:02Z</time>
      </trkpt>
      <trkpt lat="42.44302" lon="0.04407">
        <ele>775.7</ele>
        <time>2016-07-31T07:58:04Z</time>
      </trkpt>
      <trkpt lat="42.44297" lon="0.04405">
        <ele>776</ele>
        <time>2016-07-31T07:58:06Z</time>
      </trkpt>
      <trkpt lat="42.44294" lon="0.04405">
        <ele>776.1</ele>
        <time>2016-07-31T07:58:07Z</time>
      </trkpt>
      <trkpt lat="42.44291" lon="0.04404">
        <ele>776.3</ele>
        <time>2016-07-31T07:58:08Z</time>
      </trkpt>
      <trkpt lat="42.44286" lon="0.04402">
        <ele>777</ele>
        <time>2016-07-31T07:58:10Z</time>
      </trkpt>
      <trkpt lat="42.44281" lon="0.04401">
        <ele>777.7</ele>
        <time>2016-07-31T07:58:12Z</time>
      </trkpt>
      <trkpt lat="42.44277" lon="0.04399">
        <ele>778.5</ele>
        <time>2016-07-31T07:58:14Z</time>
      </trkpt>
      <trkpt lat="42.44272" lon="0.04398">
        <ele>778.9</ele>
        <time>2016-07-31T07:58:16Z</time>
      </trkpt>
      <trkpt lat="42.44267" lon="0.04398">
        <ele>779.1</ele>
        <time>2016-07-31T07:58:18Z</time>
      </trkpt>
      <trkpt lat="42.44262" lon="0.04398">
        <ele>779.3</ele>
        <time>2016-07-31T07:58:20Z</time>
      </trkpt>
      <trkpt lat="42.44257" lon="0.04397">
        <ele>779.7</ele>
        <time>2016-07-31T07:58:22Z</time>
      </trkpt>
      <trkpt lat="42.44252" lon="0.04395">
        <ele>780.3</ele>
        <time>2016-07-31T07:58:24Z</time>
      </trkpt>
      <trkpt lat="42.44247" lon="0.04394">
        <ele>781.1</ele>
        <time>2016-07-31T07:58:26Z</time>
      </trkpt>
      <trkpt lat="42.44243" lon="0.04392">
        <ele>782</ele>
        <time>2016-07-31T07:58:28Z</time>
      </trkpt>
      <trkpt lat="42.44238" lon="0.04389">
        <ele>782.9</ele>
        <time>2016-07-31T07:58:30Z</time>
      </trkpt>
      <trkpt lat="42.44233" lon="0.04387">
        <ele>783.7</ele>
        <time>2016-07-31T07:58:32Z</time>
      </trkpt>
      <trkpt lat="42.44228" lon="0.04386">
        <ele>784.4</ele>
        <time>2016-07-31T07:58:34Z</time>
      </trkpt>
      <trkpt lat="42.44223" lon="0.04385">
        <ele>785</ele>
        <time>2016-07-31T07:58:36Z</time>
      </trkpt>
      <trkpt lat="42.44218" lon="0.04383">
        <ele>785.7</ele>
        <time>2016-07-31T07:58:38Z</time>
      </trkpt>
      <trkpt lat="42.44213" lon="0.04382">
        <ele>786.4</ele>
        <time>2016-07-31T07:58:40Z</time>
      </trkpt>
      <trkpt lat="42.44208" lon="0.04379">
        <ele>787.4</ele>
        <time>2016-07-31T07:58:42Z</time>
      </trkpt>
      <trkpt lat="42.44203" lon="0.04377">
        <ele>788.1</ele>
        <time>2016-07-31T07:58:44Z</time>
      </trkpt>
      <trkpt lat="42.44198" lon="0.04375">
        <ele>788.5</ele>
        <time>2016-07-31T07:58:46Z</time>
      </trkpt>
      <trkpt lat="42.44196" lon="0.04374">
        <ele>788.6</ele>
        <time>2016-07-31T07:58:47Z</time>
      </trkpt>
      <trkpt lat="42.44193" lon="0.04374">
        <ele>788.8</ele>
        <time>2016-07-31T07:58:48Z</time>
      </trkpt>
      <trkpt lat="42.4419" lon="0.04373">
        <ele>789</ele>
        <time>2016-07-31T07:58:49Z</time>
      </trkpt>
      <trkpt lat="42.44186" lon="0.04371">
        <ele>789.4</ele>
        <time>2016-07-31T07:58:51Z</time>
      </trkpt>
      <trkpt lat="42.44181" lon="0.04369">
        <ele>789.8</ele>
        <time>2016-07-31T07:58:53Z</time>
      </trkpt>
      <trkpt lat="42.44176" lon="0.04367">
        <ele>790.3</ele>
        <time>2016-07-31T07:58:55Z</time>
      </trkpt>
      <trkpt lat="42.44171" lon="0.04365">
        <ele>790.7</ele>
        <time>2016-07-31T07:58:57Z</time>
      </trkpt>
      <trkpt lat="42.44166" lon="0.04364">
        <ele>790.9</ele>
        <time>2016-07-31T07:58:59Z</time>
      </trkpt>
      <trkpt lat="42.44162" lon="0.04362">
        <ele>791.3</ele>
        <time>2016-07-31T07:59:01Z</time>
      </trkpt>
      <trkpt lat="42.44157" lon="0.0436">
        <ele>791.8</ele>
        <time>2016-07-31T07:59:03Z</time>
      </trkpt>
      <trkpt lat="42.44153" lon="0.04358">
        <ele>792.1</ele>
        <time>2016-07-31T07:59:05Z</time>
      </trkpt>
      <trkpt lat="42.44148" lon="0.04357">
        <ele>792.3</ele>
        <time>2016-07-31T07:59:07Z</time>
      </trkpt>
      <trkpt lat="42.44143" lon="0.04355">
        <ele>792.6</ele>
        <time>2016-07-31T07:59:09Z</time>
      </trkpt>
      <trkpt lat="42.44138" lon="0.04354">
        <ele>792.9</ele>
        <time>2016-07-31T07:59:11Z</time>
      </trkpt>
      <trkpt lat="42.44133" lon="0.04352">
        <ele>793.2</ele>
        <time>2016-07-31T07:59:13Z</time>
      </trkpt>
      <trkpt lat="42.44128" lon="0.04349">
        <ele>793.8</ele>
        <time>2016-07-31T07:59:15Z</time>
      </trkpt>
      <trkpt lat="42.44124" lon="0.04348">
        <ele>794</ele>
        <time>2016-07-31T07:59:17Z</time>
      </trkpt>
      <trkpt lat="42.44119" lon="0.04346">
        <ele>793.8</ele>
        <time>2016-07-31T07:59:19Z</time>
      </trkpt>
      <trkpt lat="42.44114" lon="0.04345">
        <ele>793.6</ele>
        <time>2016-07-31T07:59:21Z</time>
      </trkpt>
      <trkpt lat="42.44109" lon="0.04344">
        <ele>793.3</ele>
        <time>2016-07-31T07:59:23Z</time>
      </trkpt>
      <trkpt lat="42.44105" lon="0.04342">
        <ele>793.2</ele>
        <time>2016-07-31T07:59:25Z</time>
      </trkpt>
      <trkpt lat="42.441" lon="0.04341">
        <ele>793.1</ele>
        <time>2016-07-31T07:59:27Z</time>
      </trkpt>
      <trkpt lat="42.44095" lon="0.0434">
        <ele>792.9</ele>
        <time>2016-07-31T07:59:29Z</time>
      </trkpt>
      <trkpt lat="42.44091" lon="0.04338">
        <ele>792.8</ele>
        <time>2016-07-31T07:59:31Z</time>
      </trkpt>
      <trkpt lat="42.44086" lon="0.04336">
        <ele>792.8</ele>
        <time>2016-07-31T07:59:33Z</time>
      </trkpt>
      <trkpt lat="42.44081" lon="0.04334">
        <ele>792.9</ele>
        <time>2016-07-31T07:59:35Z</time>
      </trkpt>
      <trkpt lat="42.44077" lon="0.04332">
        <ele>793</ele>
        <time>2016-07-31T07:59:37Z</time>
      </trkpt>
      <trkpt lat="42.44072" lon="0.0433">
        <ele>793.2</ele>
        <time>2016-07-31T07:59:39Z</time>
      </trkpt>
      <trkpt lat="42.44069" lon="0.04329">
        <ele>793.3</ele>
        <time>2016-07-31T07:59:40Z</time>
      </trkpt>
      <trkpt lat="42.44066" lon="0.04328">
        <ele>793.3</ele>
        <time>2016-07-31T07:59:41Z</time>
      </trkpt>
      <trkpt lat="42.44062" lon="0.04325">
        <ele>793.6</ele>
        <time>2016-07-31T07:59:43Z</time>
      </trkpt>
      <trkpt lat="42.44057" lon="0.04323">
        <ele>793.7</ele>
        <time>2016-07-31T07:59:45Z</time>
      </trkpt>
      <trkpt lat="42.44052" lon="0.04321">
        <ele>793.9</ele>
        <time>2016-07-31T07:59:47Z</time>
      </trkpt>
      <trkpt lat="42.44048" lon="0.04319">
        <ele>794.1</ele>
        <time>2016-07-31T07:59:49Z</time>
      </trkpt>
      <trkpt lat="42.44043" lon="0.04318">
        <ele>794.1</ele>
        <time>2016-07-31T07:59:51Z</time>
      </trkpt>
      <trkpt lat="42.44038" lon="0.04317">
        <ele>793.6</ele>
        <time>2016-07-31T07:59:53Z</time>
      </trkpt>
      <trkpt lat="42.44033" lon="0.04315">
        <ele>793.4</ele>
        <time>2016-07-31T07:59:55Z</time>
      </trkpt>
      <trkpt lat="42.44029" lon="0.04313">
        <ele>793.3</ele>
        <time>2016-07-31T07:59:57Z</time>
      </trkpt>
      <trkpt lat="42.44025" lon="0.0431">
        <ele>793.3</ele>
        <time>2016-07-31T07:59:59Z</time>
      </trkpt>
      <trkpt lat="42.4402" lon="0.04308">
        <ele>793.4</ele>
        <time>2016-07-31T08:00:01Z</time>
      </trkpt>
      <trkpt lat="42.44016" lon="0.04305">
        <ele>793.5</ele>
        <time>2016-07-31T08:00:03Z</time>
      </trkpt>
      <trkpt lat="42.44012" lon="0.04302">
        <ele>793.8</ele>
        <time>2016-07-31T08:00:05Z</time>
      </trkpt>
      <trkpt lat="42.44008" lon="0.04299">
        <ele>794.3</ele>
        <time>2016-07-31T08:00:07Z</time>
      </trkpt>
      <trkpt lat="42.44004" lon="0.04295">
        <ele>795.1</ele>
        <time>2016-07-31T08:00:09Z</time>
      </trkpt>
      <trkpt lat="42.44" lon="0.04291">
        <ele>796</ele>
        <time>2016-07-31T08:00:11Z</time>
      </trkpt>
      <trkpt lat="42.43996" lon="0.04287">
        <ele>796.8</ele>
        <time>2016-07-31T08:00:13Z</time>
      </trkpt>
      <trkpt lat="42.43992" lon="0.04283">
        <ele>797.4</ele>
        <time>2016-07-31T08:00:15Z</time>
      </trkpt>
      <trkpt lat="42.43988" lon="0.0428">
        <ele>798</ele>
        <time>2016-07-31T08:00:17Z</time>
      </trkpt>
      <trkpt lat="42.43984" lon="0.04277">
        <ele>798.7</ele>
        <time>2016-07-31T08:00:19Z</time>
      </trkpt>
      <trkpt lat="42.4398" lon="0.04273">
        <ele>799.5</ele>
        <time>2016-07-31T08:00:21Z</time>
      </trkpt>
      <trkpt lat="42.43976" lon="0.04269">
        <ele>800.4</ele>
        <time>2016-07-31T08:00:23Z</time>
      </trkpt>
      <trkpt lat="42.43972" lon="0.04266">
        <ele>801.3</ele>
        <time>2016-07-31T08:00:25Z</time>
      </trkpt>
      <trkpt lat="42.43968" lon="0.04262">
        <ele>802.2</ele>
        <time>2016-07-31T08:00:27Z</time>
      </trkpt>
      <trkpt lat="42.43964" lon="0.04258">
        <ele>803.2</ele>
        <time>2016-07-31T08:00:29Z</time>
      </trkpt>
      <trkpt lat="42.4396" lon="0.04255">
        <ele>804.2</ele>
        <time>2016-07-31T08:00:31Z</time>
      </trkpt>
      <trkpt lat="42.43956" lon="0.04251">
        <ele>805.1</ele>
        <time>2016-07-31T08:00:33Z</time>
      </trkpt>
      <trkpt lat="42.43952" lon="0.04248">
        <ele>805.9</ele>
        <time>2016-07-31T08:00:35Z</time>
      </trkpt>
      <trkpt lat="42.43948" lon="0.04244">
        <ele>806.9</ele>
        <time>2016-07-31T08:00:37Z</time>
      </trkpt>
      <trkpt lat="42.43945" lon="0.0424">
        <ele>807.9</ele>
        <time>2016-07-31T08:00:39Z</time>
      </trkpt>
      <trkpt lat="42.43941" lon="0.04236">
        <ele>808.8</ele>
        <time>2016-07-31T08:00:41Z</time>
      </trkpt>
      <trkpt lat="42.43936" lon="0.04233">
        <ele>809.5</ele>
        <time>2016-07-31T08:00:43Z</time>
      </trkpt>
      <trkpt lat="42.43932" lon="0.04229">
        <ele>810.2</ele>
        <time>2016-07-31T08:00:45Z</time>
      </trkpt>
      <trkpt lat="42.43928" lon="0.04226">
        <ele>811</ele>
        <time>2016-07-31T08:00:47Z</time>
      </trkpt>
      <trkpt lat="42.43924" lon="0.04222">
        <ele>811.6</ele>
        <time>2016-07-31T08:00:49Z</time>
      </trkpt>
      <trkpt lat="42.43919" lon="0.04219">
        <ele>812</ele>
        <time>2016-07-31T08:00:51Z</time>
      </trkpt>
      <trkpt lat="42.43915" lon="0.04216">
        <ele>812.6</ele>
        <time>2016-07-31T08:00:53Z</time>
      </trkpt>
      <trkpt lat="42.43911" lon="0.04213">
        <ele>813.2</ele>
        <time>2016-07-31T08:00:55Z</time>
      </trkpt>
      <trkpt lat="42.43907" lon="0.0421">
        <ele>813.7</ele>
        <time>2016-07-31T08:00:57Z</time>
      </trkpt>
      <trkpt lat="42.43903" lon="0.04206">
        <ele>814.5</ele>
        <time>2016-07-31T08:00:59Z</time>
      </trkpt>
      <trkpt lat="42.43899" lon="0.04203">
        <ele>815</ele>
        <time>2016-07-31T08:01:01Z</time>
      </trkpt>
      <trkpt lat="42.43895" lon="0.042">
        <ele>815</ele>
        <time>2016-07-31T08:01:03Z</time>
      </trkpt>
      <trkpt lat="42.43891" lon="0.04198">
        <ele>815.1</ele>
        <time>2016-07-31T08:01:05Z</time>
      </trkpt>
      <trkpt lat="42.43887" lon="0.04194">
        <ele>815.7</ele>
        <time>2016-07-31T08:01:07Z</time>
      </trkpt>
      <trkpt lat="42.43883" lon="0.04191">
        <ele>816.3</ele>
        <time>2016-07-31T08:01:09Z</time>
      </trkpt>
      <trkpt lat="42.43879" lon="0.04187">
        <ele>816.7</ele>
        <time>2016-07-31T08:01:11Z</time>
      </trkpt>
      <trkpt lat="42.43875" lon="0.04183">
        <ele>817.4</ele>
        <time>2016-07-31T08:01:13Z</time>
      </trkpt>
      <trkpt lat="42.43871" lon="0.04178">
        <ele>818.4</ele>
        <time>2016-07-31T08:01:15Z</time>
      </trkpt>
      <trkpt lat="42.43868" lon="0.04174">
        <ele>819.2</ele>
        <time>2016-07-31T08:01:17Z</time>
      </trkpt>
      <trkpt lat="42.43863" lon="0.0417">
        <ele>819.7</ele>
        <time>2016-07-31T08:01:19Z</time>
      </trkpt>
      <trkpt lat="42.43859" lon="0.04167">
        <ele>819.9</ele>
        <time>2016-07-31T08:01:21Z</time>
      </trkpt>
      <trkpt lat="42.43854" lon="0.04164">
        <ele>819.7</ele>
        <time>2016-07-31T08:01:23Z</time>
      </trkpt>
      <trkpt lat="42.43849" lon="0.04162">
        <ele>819.4</ele>
        <time>2016-07-31T08:01:25Z</time>
      </trkpt>
      <trkpt lat="42.43844" lon="0.0416">
        <ele>818.9</ele>
        <time>2016-07-31T08:01:27Z</time>
      </trkpt>
      <trkpt lat="42.4384" lon="0.04159">
        <ele>818.3</ele>
        <time>2016-07-31T08:01:29Z</time>
      </trkpt>
      <trkpt lat="42.43835" lon="0.04157">
        <ele>817.9</ele>
        <time>2016-07-31T08:01:31Z</time>
      </trkpt>
      <trkpt lat="42.43831" lon="0.04155">
        <ele>817.5</ele>
        <time>2016-07-31T08:01:33Z</time>
      </trkpt>
      <trkpt lat="42.43827" lon="0.04152">
        <ele>817.4</ele>
        <time>2016-07-31T08:01:35Z</time>
      </trkpt>
      <trkpt lat="42.43822" lon="0.04149">
        <ele>816.9</ele>
        <time>2016-07-31T08:01:37Z</time>
      </trkpt>
      <trkpt lat="42.43817" lon="0.04147">
        <ele>816.3</ele>
        <time>2016-07-31T08:01:39Z</time>
      </trkpt>
      <trkpt lat="42.43813" lon="0.04145">
        <ele>815.8</ele>
        <time>2016-07-31T08:01:41Z</time>
      </trkpt>
      <trkpt lat="42.43809" lon="0.04141">
        <ele>815.6</ele>
        <time>2016-07-31T08:01:43Z</time>
      </trkpt>
      <trkpt lat="42.43805" lon="0.04136">
        <ele>816.2</ele>
        <time>2016-07-31T08:01:45Z</time>
      </trkpt>
      <trkpt lat="42.43802" lon="0.0413">
        <ele>816.9</ele>
        <time>2016-07-31T08:01:47Z</time>
      </trkpt>
      <trkpt lat="42.438" lon="0.04124">
        <ele>817.6</ele>
        <time>2016-07-31T08:01:49Z</time>
      </trkpt>
      <trkpt lat="42.43798" lon="0.04121">
        <ele>818</ele>
        <time>2016-07-31T08:01:50Z</time>
      </trkpt>
      <trkpt lat="42.43795" lon="0.04115">
        <ele>818.6</ele>
        <time>2016-07-31T08:01:52Z</time>
      </trkpt>
      <trkpt lat="42.43793" lon="0.04109">
        <ele>819.4</ele>
        <time>2016-07-31T08:01:54Z</time>
      </trkpt>
      <trkpt lat="42.4379" lon="0.04103">
        <ele>820.3</ele>
        <time>2016-07-31T08:01:56Z</time>
      </trkpt>
      <trkpt lat="42.43786" lon="0.04098">
        <ele>821.1</ele>
        <time>2016-07-31T08:01:58Z</time>
      </trkpt>
      <trkpt lat="42.43783" lon="0.04093">
        <ele>821.7</ele>
        <time>2016-07-31T08:02:00Z</time>
      </trkpt>
      <trkpt lat="42.43779" lon="0.04088">
        <ele>822.3</ele>
        <time>2016-07-31T08:02:02Z</time>
      </trkpt>
      <trkpt lat="42.43777" lon="0.04086">
        <ele>822.5</ele>
        <time>2016-07-31T08:02:03Z</time>
      </trkpt>
      <trkpt lat="42.43773" lon="0.04082">
        <ele>822.6</ele>
        <time>2016-07-31T08:02:05Z</time>
      </trkpt>
      <trkpt lat="42.43769" lon="0.04078">
        <ele>822.7</ele>
        <time>2016-07-31T08:02:07Z</time>
      </trkpt>
      <trkpt lat="42.43766" lon="0.04075">
        <ele>822.8</ele>
        <time>2016-07-31T08:02:08Z</time>
      </trkpt>
      <trkpt lat="42.43764" lon="0.04073">
        <ele>822.9</ele>
        <time>2016-07-31T08:02:09Z</time>
      </trkpt>
      <trkpt lat="42.43762" lon="0.04071">
        <ele>822.9</ele>
        <time>2016-07-31T08:02:10Z</time>
      </trkpt>
      <trkpt lat="42.43757" lon="0.04067">
        <ele>822.9</ele>
        <time>2016-07-31T08:02:12Z</time>
      </trkpt>
      <trkpt lat="42.43754" lon="0.04064">
        <ele>823</ele>
        <time>2016-07-31T08:02:14Z</time>
      </trkpt>
      <trkpt lat="42.4375" lon="0.0406">
        <ele>823</ele>
        <time>2016-07-31T08:02:16Z</time>
      </trkpt>
      <trkpt lat="42.43746" lon="0.04058">
        <ele>822.8</ele>
        <time>2016-07-31T08:02:18Z</time>
      </trkpt>
      <trkpt lat="42.43742" lon="0.04054">
        <ele>822.7</ele>
        <time>2016-07-31T08:02:20Z</time>
      </trkpt>
      <trkpt lat="42.43738" lon="0.0405">
        <ele>822.9</ele>
        <time>2016-07-31T08:02:22Z</time>
      </trkpt>
      <trkpt lat="42.43735" lon="0.04046">
        <ele>823</ele>
        <time>2016-07-31T08:02:24Z</time>
      </trkpt>
      <trkpt lat="42.43732" lon="0.04042">
        <ele>823.3</ele>
        <time>2016-07-31T08:02:26Z</time>
      </trkpt>
      <trkpt lat="42.43729" lon="0.04037">
        <ele>823.8</ele>
        <time>2016-07-31T08:02:28Z</time>
      </trkpt>
      <trkpt lat="42.43726" lon="0.04031">
        <ele>824.4</ele>
        <time>2016-07-31T08:02:30Z</time>
      </trkpt>
      <trkpt lat="42.43723" lon="0.04025">
        <ele>825.1</ele>
        <time>2016-07-31T08:02:32Z</time>
      </trkpt>
      <trkpt lat="42.43721" lon="0.0402">
        <ele>825.9</ele>
        <time>2016-07-31T08:02:34Z</time>
      </trkpt>
      <trkpt lat="42.43719" lon="0.04014">
        <ele>826.8</ele>
        <time>2016-07-31T08:02:36Z</time>
      </trkpt>
      <trkpt lat="42.43717" lon="0.04008">
        <ele>827.6</ele>
        <time>2016-07-31T08:02:38Z</time>
      </trkpt>
      <trkpt lat="42.43714" lon="0.04003">
        <ele>828.4</ele>
        <time>2016-07-31T08:02:40Z</time>
      </trkpt>
      <trkpt lat="42.43711" lon="0.03998">
        <ele>829</ele>
        <time>2016-07-31T08:02:42Z</time>
      </trkpt>
      <trkpt lat="42.43707" lon="0.03993">
        <ele>829.4</ele>
        <time>2016-07-31T08:02:44Z</time>
      </trkpt>
      <trkpt lat="42.43704" lon="0.03989">
        <ele>829.5</ele>
        <time>2016-07-31T08:02:46Z</time>
      </trkpt>
      <trkpt lat="42.437" lon="0.03984">
        <ele>829.5</ele>
        <time>2016-07-31T08:02:48Z</time>
      </trkpt>
      <trkpt lat="42.43696" lon="0.0398">
        <ele>829.4</ele>
        <time>2016-07-31T08:02:50Z</time>
      </trkpt>
      <trkpt lat="42.43692" lon="0.03977">
        <ele>829</ele>
        <time>2016-07-31T08:02:52Z</time>
      </trkpt>
      <trkpt lat="42.43688" lon="0.03973">
        <ele>828.5</ele>
        <time>2016-07-31T08:02:54Z</time>
      </trkpt>
      <trkpt lat="42.43684" lon="0.0397">
        <ele>828.2</ele>
        <time>2016-07-31T08:02:56Z</time>
      </trkpt>
      <trkpt lat="42.4368" lon="0.03966">
        <ele>827.5</ele>
        <time>2016-07-31T08:02:58Z</time>
      </trkpt>
      <trkpt lat="42.43678" lon="0.03964">
        <ele>827.1</ele>
        <time>2016-07-31T08:02:59Z</time>
      </trkpt>
      <trkpt lat="42.43675" lon="0.03963">
        <ele>826.6</ele>
        <time>2016-07-31T08:03:00Z</time>
      </trkpt>
      <trkpt lat="42.43671" lon="0.03959">
        <ele>825.9</ele>
        <time>2016-07-31T08:03:02Z</time>
      </trkpt>
      <trkpt lat="42.43667" lon="0.03957">
        <ele>824.9</ele>
        <time>2016-07-31T08:03:04Z</time>
      </trkpt>
      <trkpt lat="42.43663" lon="0.03953">
        <ele>823.9</ele>
        <time>2016-07-31T08:03:06Z</time>
      </trkpt>
      <trkpt lat="42.4366" lon="0.03949">
        <ele>823.3</ele>
        <time>2016-07-31T08:03:08Z</time>
      </trkpt>
      <trkpt lat="42.43656" lon="0.03944">
        <ele>822.8</ele>
        <time>2016-07-31T08:03:10Z</time>
      </trkpt>
      <trkpt lat="42.43654" lon="0.03938">
        <ele>822.6</ele>
        <time>2016-07-31T08:03:12Z</time>
      </trkpt>
      <trkpt lat="42.43651" lon="0.03932">
        <ele>822.5</ele>
        <time>2016-07-31T08:03:14Z</time>
      </trkpt>
      <trkpt lat="42.43649" lon="0.03925">
        <ele>822.5</ele>
        <time>2016-07-31T08:03:16Z</time>
      </trkpt>
      <trkpt lat="42.43648" lon="0.03919">
        <ele>822.6</ele>
        <time>2016-07-31T08:03:18Z</time>
      </trkpt>
      <trkpt lat="42.43646" lon="0.03913">
        <ele>822.7</ele>
        <time>2016-07-31T08:03:20Z</time>
      </trkpt>
      <trkpt lat="42.43644" lon="0.03907">
        <ele>822.7</ele>
        <time>2016-07-31T08:03:22Z</time>
      </trkpt>
      <trkpt lat="42.43642" lon="0.03901">
        <ele>822.6</ele>
        <time>2016-07-31T08:03:24Z</time>
      </trkpt>
      <trkpt lat="42.43641" lon="0.03895">
        <ele>822.6</ele>
        <time>2016-07-31T08:03:26Z</time>
      </trkpt>
      <trkpt lat="42.43639" lon="0.03889">
        <ele>822.7</ele>
        <time>2016-07-31T08:03:28Z</time>
      </trkpt>
      <trkpt lat="42.43638" lon="0.03884">
        <ele>822.8</ele>
        <time>2016-07-31T08:03:30Z</time>
      </trkpt>
      <trkpt lat="42.43636" lon="0.03878">
        <ele>822.8</ele>
        <time>2016-07-31T08:03:32Z</time>
      </trkpt>
      <trkpt lat="42.43634" lon="0.03872">
        <ele>823.2</ele>
        <time>2016-07-31T08:03:34Z</time>
      </trkpt>
      <trkpt lat="42.43633" lon="0.03867">
        <ele>824</ele>
        <time>2016-07-31T08:03:36Z</time>
      </trkpt>
      <trkpt lat="42.43632" lon="0.03861">
        <ele>825.4</ele>
        <time>2016-07-31T08:03:38Z</time>
      </trkpt>
      <trkpt lat="42.43632" lon="0.03855">
        <ele>827</ele>
        <time>2016-07-31T08:03:40Z</time>
      </trkpt>
      <trkpt lat="42.43631" lon="0.03848">
        <ele>828.7</ele>
        <time>2016-07-31T08:03:42Z</time>
      </trkpt>
      <trkpt lat="42.43632" lon="0.03842">
        <ele>830.5</ele>
        <time>2016-07-31T08:03:44Z</time>
      </trkpt>
      <trkpt lat="42.43632" lon="0.03835">
        <ele>832.6</ele>
        <time>2016-07-31T08:03:46Z</time>
      </trkpt>
      <trkpt lat="42.43633" lon="0.03828">
        <ele>834.7</ele>
        <time>2016-07-31T08:03:48Z</time>
      </trkpt>
      <trkpt lat="42.43633" lon="0.03821">
        <ele>836.7</ele>
        <time>2016-07-31T08:03:50Z</time>
      </trkpt>
      <trkpt lat="42.43632" lon="0.03814">
        <ele>838.2</ele>
        <time>2016-07-31T08:03:52Z</time>
      </trkpt>
      <trkpt lat="42.4363" lon="0.03807">
        <ele>839.3</ele>
        <time>2016-07-31T08:03:54Z</time>
      </trkpt>
      <trkpt lat="42.43628" lon="0.03801">
        <ele>840.4</ele>
        <time>2016-07-31T08:03:56Z</time>
      </trkpt>
      <trkpt lat="42.43625" lon="0.03796">
        <ele>840.9</ele>
        <time>2016-07-31T08:03:58Z</time>
      </trkpt>
      <trkpt lat="42.43622" lon="0.03792">
        <ele>841</ele>
        <time>2016-07-31T08:04:00Z</time>
      </trkpt>
      <trkpt lat="42.43618" lon="0.03787">
        <ele>840.4</ele>
        <time>2016-07-31T08:04:02Z</time>
      </trkpt>
      <trkpt lat="42.43616" lon="0.03784">
        <ele>840.1</ele>
        <time>2016-07-31T08:04:03Z</time>
      </trkpt>
      <trkpt lat="42.43612" lon="0.03779">
        <ele>839.6</ele>
        <time>2016-07-31T08:04:05Z</time>
      </trkpt>
      <trkpt lat="42.43609" lon="0.03775">
        <ele>839.2</ele>
        <time>2016-07-31T08:04:07Z</time>
      </trkpt>
      <trkpt lat="42.43606" lon="0.0377">
        <ele>838.8</ele>
        <time>2016-07-31T08:04:09Z</time>
      </trkpt>
      <trkpt lat="42.43603" lon="0.03765">
        <ele>838.4</ele>
        <time>2016-07-31T08:04:11Z</time>
      </trkpt>
      <trkpt lat="42.43599" lon="0.03761">
        <ele>837.8</ele>
        <time>2016-07-31T08:04:13Z</time>
      </trkpt>
      <trkpt lat="42.43596" lon="0.03756">
        <ele>837.4</ele>
        <time>2016-07-31T08:04:15Z</time>
      </trkpt>
      <trkpt lat="42.43593" lon="0.0375">
        <ele>837</ele>
        <time>2016-07-31T08:04:17Z</time>
      </trkpt>
      <trkpt lat="42.4359" lon="0.03744">
        <ele>836.9</ele>
        <time>2016-07-31T08:04:19Z</time>
      </trkpt>
      <trkpt lat="42.43588" lon="0.03738">
        <ele>837</ele>
        <time>2016-07-31T08:04:21Z</time>
      </trkpt>
      <trkpt lat="42.43586" lon="0.03732">
        <ele>837.1</ele>
        <time>2016-07-31T08:04:23Z</time>
      </trkpt>
      <trkpt lat="42.43584" lon="0.03726">
        <ele>837.1</ele>
        <time>2016-07-31T08:04:25Z</time>
      </trkpt>
      <trkpt lat="42.43581" lon="0.03721">
        <ele>837</ele>
        <time>2016-07-31T08:04:27Z</time>
      </trkpt>
      <trkpt lat="42.43579" lon="0.03715">
        <ele>837</ele>
        <time>2016-07-31T08:04:29Z</time>
      </trkpt>
      <trkpt lat="42.43578" lon="0.03709">
        <ele>837.1</ele>
        <time>2016-07-31T08:04:31Z</time>
      </trkpt>
      <trkpt lat="42.43576" lon="0.03703">
        <ele>837.3</ele>
        <time>2016-07-31T08:04:33Z</time>
      </trkpt>
      <trkpt lat="42.43575" lon="0.03697">
        <ele>837.8</ele>
        <time>2016-07-31T08:04:35Z</time>
      </trkpt>
      <trkpt lat="42.43575" lon="0.0369">
        <ele>838.6</ele>
        <time>2016-07-31T08:04:37Z</time>
      </trkpt>
      <trkpt lat="42.43576" lon="0.03684">
        <ele>839.6</ele>
        <time>2016-07-31T08:04:39Z</time>
      </trkpt>
      <trkpt lat="42.43577" lon="0.03678">
        <ele>840.6</ele>
        <time>2016-07-31T08:04:41Z</time>
      </trkpt>
      <trkpt lat="42.4358" lon="0.03672">
        <ele>841.9</ele>
        <time>2016-07-31T08:04:43Z</time>
      </trkpt>
      <trkpt lat="42.43583" lon="0.03667">
        <ele>843.3</ele>
        <time>2016-07-31T08:04:45Z</time>
      </trkpt>
      <trkpt lat="42.43585" lon="0.03661">
        <ele>844.5</ele>
        <time>2016-07-31T08:04:47Z</time>
      </trkpt>
      <trkpt lat="42.43587" lon="0.03656">
        <ele>845.7</ele>
        <time>2016-07-31T08:04:49Z</time>
      </trkpt>
      <trkpt lat="42.4359" lon="0.0365">
        <ele>846.8</ele>
        <time>2016-07-31T08:04:51Z</time>
      </trkpt>
      <trkpt lat="42.43592" lon="0.03645">
        <ele>847.9</ele>
        <time>2016-07-31T08:04:53Z</time>
      </trkpt>
      <trkpt lat="42.43594" lon="0.03639">
        <ele>848.9</ele>
        <time>2016-07-31T08:04:55Z</time>
      </trkpt>
      <trkpt lat="42.43595" lon="0.03634">
        <ele>849.8</ele>
        <time>2016-07-31T08:04:57Z</time>
      </trkpt>
      <trkpt lat="42.43597" lon="0.03628">
        <ele>850.6</ele>
        <time>2016-07-31T08:04:59Z</time>
      </trkpt>
      <trkpt lat="42.43597" lon="0.03622">
        <ele>851.6</ele>
        <time>2016-07-31T08:05:01Z</time>
      </trkpt>
      <trkpt lat="42.43597" lon="0.03616">
        <ele>852.8</ele>
        <time>2016-07-31T08:05:03Z</time>
      </trkpt>
      <trkpt lat="42.43596" lon="0.0361">
        <ele>853.7</ele>
        <time>2016-07-31T08:05:05Z</time>
      </trkpt>
      <trkpt lat="42.43595" lon="0.03603">
        <ele>854.6</ele>
        <time>2016-07-31T08:05:07Z</time>
      </trkpt>
      <trkpt lat="42.43593" lon="0.03597">
        <ele>855.4</ele>
        <time>2016-07-31T08:05:09Z</time>
      </trkpt>
      <trkpt lat="42.43591" lon="0.03591">
        <ele>856</ele>
        <time>2016-07-31T08:05:11Z</time>
      </trkpt>
      <trkpt lat="42.43589" lon="0.03585">
        <ele>856.5</ele>
        <time>2016-07-31T08:05:13Z</time>
      </trkpt>
      <trkpt lat="42.43585" lon="0.0358">
        <ele>856.7</ele>
        <time>2016-07-31T08:05:15Z</time>
      </trkpt>
      <trkpt lat="42.43583" lon="0.03578">
        <ele>856.6</ele>
        <time>2016-07-31T08:05:16Z</time>
      </trkpt>
      <trkpt lat="42.4358" lon="0.03575">
        <ele>856.6</ele>
        <time>2016-07-31T08:05:17Z</time>
      </trkpt>
      <trkpt lat="42.43578" lon="0.03573">
        <ele>856.5</ele>
        <time>2016-07-31T08:05:18Z</time>
      </trkpt>
      <trkpt lat="42.43576" lon="0.03571">
        <ele>856.4</ele>
        <time>2016-07-31T08:05:19Z</time>
      </trkpt>
      <trkpt lat="42.43573" lon="0.03569">
        <ele>856.2</ele>
        <time>2016-07-31T08:05:20Z</time>
      </trkpt>
      <trkpt lat="42.43571" lon="0.03567">
        <ele>856</ele>
        <time>2016-07-31T08:05:21Z</time>
      </trkpt>
      <trkpt lat="42.43568" lon="0.03566">
        <ele>855.7</ele>
        <time>2016-07-31T08:05:22Z</time>
      </trkpt>
      <trkpt lat="42.43566" lon="0.03564">
        <ele>855.4</ele>
        <time>2016-07-31T08:05:23Z</time>
      </trkpt>
      <trkpt lat="42.43564" lon="0.03562">
        <ele>855.3</ele>
        <time>2016-07-31T08:05:24Z</time>
      </trkpt>
      <trkpt lat="42.43559" lon="0.03558">
        <ele>854.9</ele>
        <time>2016-07-31T08:05:26Z</time>
      </trkpt>
      <trkpt lat="42.43554" lon="0.03554">
        <ele>854.6</ele>
        <time>2016-07-31T08:05:28Z</time>
      </trkpt>
      <trkpt lat="42.4355" lon="0.03551">
        <ele>854.3</ele>
        <time>2016-07-31T08:05:30Z</time>
      </trkpt>
      <trkpt lat="42.43546" lon="0.03546">
        <ele>854.1</ele>
        <time>2016-07-31T08:05:32Z</time>
      </trkpt>
      <trkpt lat="42.43544" lon="0.03544">
        <ele>854</ele>
        <time>2016-07-31T08:05:33Z</time>
      </trkpt>
      <trkpt lat="42.43542" lon="0.03542">
        <ele>854</ele>
        <time>2016-07-31T08:05:34Z</time>
      </trkpt>
      <trkpt lat="42.4354" lon="0.03539">
        <ele>854.4</ele>
        <time>2016-07-31T08:05:35Z</time>
      </trkpt>
      <trkpt lat="42.43538" lon="0.03537">
        <ele>854.7</ele>
        <time>2016-07-31T08:05:36Z</time>
      </trkpt>
      <trkpt lat="42.43535" lon="0.03534">
        <ele>855</ele>
        <time>2016-07-31T08:05:37Z</time>
      </trkpt>
      <trkpt lat="42.43534" lon="0.03531">
        <ele>855.4</ele>
        <time>2016-07-31T08:05:38Z</time>
      </trkpt>
      <trkpt lat="42.43531" lon="0.03526">
        <ele>856.1</ele>
        <time>2016-07-31T08:05:40Z</time>
      </trkpt>
      <trkpt lat="42.43529" lon="0.03522">
        <ele>856.5</ele>
        <time>2016-07-31T08:05:41Z</time>
      </trkpt>
      <trkpt lat="42.43528" lon="0.03519">
        <ele>856.9</ele>
        <time>2016-07-31T08:05:42Z</time>
      </trkpt>
      <trkpt lat="42.43527" lon="0.03515">
        <ele>857.3</ele>
        <time>2016-07-31T08:05:43Z</time>
      </trkpt>
      <trkpt lat="42.43525" lon="0.03512">
        <ele>857.7</ele>
        <time>2016-07-31T08:05:44Z</time>
      </trkpt>
      <trkpt lat="42.43524" lon="0.03508">
        <ele>858.1</ele>
        <time>2016-07-31T08:05:45Z</time>
      </trkpt>
      <trkpt lat="42.43523" lon="0.03504">
        <ele>858.5</ele>
        <time>2016-07-31T08:05:46Z</time>
      </trkpt>
      <trkpt lat="42.43521" lon="0.035">
        <ele>858.8</ele>
        <time>2016-07-31T08:05:47Z</time>
      </trkpt>
      <trkpt lat="42.4352" lon="0.03496">
        <ele>859.1</ele>
        <time>2016-07-31T08:05:48Z</time>
      </trkpt>
      <trkpt lat="42.43519" lon="0.03493">
        <ele>859.4</ele>
        <time>2016-07-31T08:05:49Z</time>
      </trkpt>
      <trkpt lat="42.43518" lon="0.03489">
        <ele>859.7</ele>
        <time>2016-07-31T08:05:50Z</time>
      </trkpt>
      <trkpt lat="42.43516" lon="0.03486">
        <ele>859.9</ele>
        <time>2016-07-31T08:05:51Z</time>
      </trkpt>
      <trkpt lat="42.43515" lon="0.03483">
        <ele>860.1</ele>
        <time>2016-07-31T08:05:52Z</time>
      </trkpt>
      <trkpt lat="42.43513" lon="0.03476">
        <ele>860.3</ele>
        <time>2016-07-31T08:05:54Z</time>
      </trkpt>
      <trkpt lat="42.43511" lon="0.03473">
        <ele>860.4</ele>
        <time>2016-07-31T08:05:55Z</time>
      </trkpt>
      <trkpt lat="42.43509" lon="0.0347">
        <ele>860.4</ele>
        <time>2016-07-31T08:05:56Z</time>
      </trkpt>
      <trkpt lat="42.43508" lon="0.03467">
        <ele>860.4</ele>
        <time>2016-07-31T08:05:57Z</time>
      </trkpt>
      <trkpt lat="42.43506" lon="0.03463">
        <ele>860.4</ele>
        <time>2016-07-31T08:05:58Z</time>
      </trkpt>
      <trkpt lat="42.43505" lon="0.0346">
        <ele>860.4</ele>
        <time>2016-07-31T08:05:59Z</time>
      </trkpt>
      <trkpt lat="42.43504" lon="0.03456">
        <ele>860.5</ele>
        <time>2016-07-31T08:06:00Z</time>
      </trkpt>
      <trkpt lat="42.43503" lon="0.03453">
        <ele>860.6</ele>
        <time>2016-07-31T08:06:01Z</time>
      </trkpt>
      <trkpt lat="42.43502" lon="0.03449">
        <ele>860.7</ele>
        <time>2016-07-31T08:06:02Z</time>
      </trkpt>
      <trkpt lat="42.43501" lon="0.03446">
        <ele>860.7</ele>
        <time>2016-07-31T08:06:03Z</time>
      </trkpt>
      <trkpt lat="42.435" lon="0.03442">
        <ele>860.9</ele>
        <time>2016-07-31T08:06:04Z</time>
      </trkpt>
      <trkpt lat="42.43499" lon="0.03438">
        <ele>861</ele>
        <time>2016-07-31T08:06:05Z</time>
      </trkpt>
      <trkpt lat="42.43498" lon="0.03435">
        <ele>861</ele>
        <time>2016-07-31T08:06:06Z</time>
      </trkpt>
      <trkpt lat="42.43497" lon="0.03431">
        <ele>860.9</ele>
        <time>2016-07-31T08:06:07Z</time>
      </trkpt>
      <trkpt lat="42.43496" lon="0.03428">
        <ele>860.9</ele>
        <time>2016-07-31T08:06:08Z</time>
      </trkpt>
      <trkpt lat="42.43495" lon="0.03424">
        <ele>860.9</ele>
        <time>2016-07-31T08:06:09Z</time>
      </trkpt>
      <trkpt lat="42.43494" lon="0.0342">
        <ele>860.9</ele>
        <time>2016-07-31T08:06:10Z</time>
      </trkpt>
      <trkpt lat="42.43493" lon="0.03416">
        <ele>860.9</ele>
        <time>2016-07-31T08:06:11Z</time>
      </trkpt>
      <trkpt lat="42.43492" lon="0.03412">
        <ele>860.9</ele>
        <time>2016-07-31T08:06:12Z</time>
      </trkpt>
      <trkpt lat="42.43491" lon="0.03409">
        <ele>860.9</ele>
        <time>2016-07-31T08:06:13Z</time>
      </trkpt>
      <trkpt lat="42.4349" lon="0.03405">
        <ele>860.8</ele>
        <time>2016-07-31T08:06:14Z</time>
      </trkpt>
      <trkpt lat="42.43489" lon="0.03402">
        <ele>860.7</ele>
        <time>2016-07-31T08:06:15Z</time>
      </trkpt>
      <trkpt lat="42.43487" lon="0.03395">
        <ele>860.7</ele>
        <time>2016-07-31T08:06:17Z</time>
      </trkpt>
      <trkpt lat="42.43486" lon="0.03391">
        <ele>860.6</ele>
        <time>2016-07-31T08:06:18Z</time>
      </trkpt>
      <trkpt lat="42.43486" lon="0.03387">
        <ele>860.7</ele>
        <time>2016-07-31T08:06:19Z</time>
      </trkpt>
      <trkpt lat="42.43485" lon="0.03384">
        <ele>860.7</ele>
        <time>2016-07-31T08:06:20Z</time>
      </trkpt>
      <trkpt lat="42.43484" lon="0.0338">
        <ele>860.5</ele>
        <time>2016-07-31T08:06:21Z</time>
      </trkpt>
      <trkpt lat="42.43483" lon="0.03377">
        <ele>860.5</ele>
        <time>2016-07-31T08:06:22Z</time>
      </trkpt>
      <trkpt lat="42.43483" lon="0.03373">
        <ele>860.6</ele>
        <time>2016-07-31T08:06:23Z</time>
      </trkpt>
      <trkpt lat="42.43482" lon="0.03369">
        <ele>860.7</ele>
        <time>2016-07-31T08:06:24Z</time>
      </trkpt>
      <trkpt lat="42.43482" lon="0.03365">
        <ele>861</ele>
        <time>2016-07-31T08:06:25Z</time>
      </trkpt>
      <trkpt lat="42.43482" lon="0.03362">
        <ele>861.2</ele>
        <time>2016-07-31T08:06:26Z</time>
      </trkpt>
      <trkpt lat="42.43482" lon="0.03355">
        <ele>861.5</ele>
        <time>2016-07-31T08:06:28Z</time>
      </trkpt>
      <trkpt lat="42.43481" lon="0.03351">
        <ele>861.5</ele>
        <time>2016-07-31T08:06:29Z</time>
      </trkpt>
      <trkpt lat="42.4348" lon="0.03347">
        <ele>861.5</ele>
        <time>2016-07-31T08:06:30Z</time>
      </trkpt>
      <trkpt lat="42.4348" lon="0.03343">
        <ele>861.6</ele>
        <time>2016-07-31T08:06:31Z</time>
      </trkpt>
      <trkpt lat="42.4348" lon="0.0334">
        <ele>861.8</ele>
        <time>2016-07-31T08:06:32Z</time>
      </trkpt>
      <trkpt lat="42.43479" lon="0.03333">
        <ele>862.1</ele>
        <time>2016-07-31T08:06:34Z</time>
      </trkpt>
      <trkpt lat="42.43479" lon="0.03326">
        <ele>862.5</ele>
        <time>2016-07-31T08:06:36Z</time>
      </trkpt>
      <trkpt lat="42.43479" lon="0.03322">
        <ele>862.9</ele>
        <time>2016-07-31T08:06:37Z</time>
      </trkpt>
      <trkpt lat="42.4348" lon="0.03318">
        <ele>863.3</ele>
        <time>2016-07-31T08:06:38Z</time>
      </trkpt>
      <trkpt lat="42.43481" lon="0.03312">
        <ele>864.2</ele>
        <time>2016-07-31T08:06:40Z</time>
      </trkpt>
      <trkpt lat="42.43482" lon="0.03306">
        <ele>865</ele>
        <time>2016-07-31T08:06:42Z</time>
      </trkpt>
      <trkpt lat="42.43484" lon="0.033">
        <ele>866.2</ele>
        <time>2016-07-31T08:06:44Z</time>
      </trkpt>
      <trkpt lat="42.43487" lon="0.03293">
        <ele>867.6</ele>
        <time>2016-07-31T08:06:46Z</time>
      </trkpt>
      <trkpt lat="42.43489" lon="0.0329">
        <ele>868.5</ele>
        <time>2016-07-31T08:06:47Z</time>
      </trkpt>
      <trkpt lat="42.43492" lon="0.03285">
        <ele>870.2</ele>
        <time>2016-07-31T08:06:49Z</time>
      </trkpt>
      <trkpt lat="42.43494" lon="0.0328">
        <ele>871.9</ele>
        <time>2016-07-31T08:06:51Z</time>
      </trkpt>
      <trkpt lat="42.43497" lon="0.03275">
        <ele>873.8</ele>
        <time>2016-07-31T08:06:53Z</time>
      </trkpt>
      <trkpt lat="42.435" lon="0.0327">
        <ele>875.6</ele>
        <time>2016-07-31T08:06:55Z</time>
      </trkpt>
      <trkpt lat="42.43502" lon="0.03265">
        <ele>877.3</ele>
        <time>2016-07-31T08:06:57Z</time>
      </trkpt>
      <trkpt lat="42.43505" lon="0.0326">
        <ele>879.1</ele>
        <time>2016-07-31T08:06:59Z</time>
      </trkpt>
      <trkpt lat="42.43508" lon="0.03255">
        <ele>880.9</ele>
        <time>2016-07-31T08:07:01Z</time>
      </trkpt>
      <trkpt lat="42.4351" lon="0.03249">
        <ele>882.8</ele>
        <time>2016-07-31T08:07:03Z</time>
      </trkpt>
      <trkpt lat="42.43512" lon="0.03243">
        <ele>884.3</ele>
        <time>2016-07-31T08:07:05Z</time>
      </trkpt>
      <trkpt lat="42.43513" lon="0.03237">
        <ele>885.6</ele>
        <time>2016-07-31T08:07:07Z</time>
      </trkpt>
      <trkpt lat="42.43513" lon="0.03231">
        <ele>886.6</ele>
        <time>2016-07-31T08:07:09Z</time>
      </trkpt>
      <trkpt lat="42.43512" lon="0.03225">
        <ele>887.4</ele>
        <time>2016-07-31T08:07:11Z</time>
      </trkpt>
      <trkpt lat="42.4351" lon="0.03218">
        <ele>888</ele>
        <time>2016-07-31T08:07:13Z</time>
      </trkpt>
      <trkpt lat="42.43507" lon="0.03212">
        <ele>887.9</ele>
        <time>2016-07-31T08:07:15Z</time>
      </trkpt>
      <trkpt lat="42.43504" lon="0.03207">
        <ele>887.9</ele>
        <time>2016-07-31T08:07:17Z</time>
      </trkpt>
      <trkpt lat="42.435" lon="0.03203">
        <ele>887.6</ele>
        <time>2016-07-31T08:07:19Z</time>
      </trkpt>
      <trkpt lat="42.43496" lon="0.03199">
        <ele>886.9</ele>
        <time>2016-07-31T08:07:21Z</time>
      </trkpt>
      <trkpt lat="42.43492" lon="0.03196">
        <ele>886.1</ele>
        <time>2016-07-31T08:07:23Z</time>
      </trkpt>
      <trkpt lat="42.43487" lon="0.03193">
        <ele>885</ele>
        <time>2016-07-31T08:07:25Z</time>
      </trkpt>
      <trkpt lat="42.43482" lon="0.03191">
        <ele>883.8</ele>
        <time>2016-07-31T08:07:27Z</time>
      </trkpt>
      <trkpt lat="42.43477" lon="0.03189">
        <ele>882.4</ele>
        <time>2016-07-31T08:07:29Z</time>
      </trkpt>
      <trkpt lat="42.43475" lon="0.03188">
        <ele>881.8</ele>
        <time>2016-07-31T08:07:30Z</time>
      </trkpt>
      <trkpt lat="42.4347" lon="0.03184">
        <ele>880.8</ele>
        <time>2016-07-31T08:07:32Z</time>
      </trkpt>
      <trkpt lat="42.43465" lon="0.03182">
        <ele>879.6</ele>
        <time>2016-07-31T08:07:34Z</time>
      </trkpt>
      <trkpt lat="42.4346" lon="0.0318">
        <ele>878.3</ele>
        <time>2016-07-31T08:07:36Z</time>
      </trkpt>
      <trkpt lat="42.43456" lon="0.03176">
        <ele>878.2</ele>
        <time>2016-07-31T08:07:38Z</time>
      </trkpt>
      <trkpt lat="42.43452" lon="0.03172">
        <ele>878.8</ele>
        <time>2016-07-31T08:07:40Z</time>
      </trkpt>
      <trkpt lat="42.43449" lon="0.03168">
        <ele>879.4</ele>
        <time>2016-07-31T08:07:42Z</time>
      </trkpt>
      <trkpt lat="42.43446" lon="0.03163">
        <ele>880.1</ele>
        <time>2016-07-31T08:07:44Z</time>
      </trkpt>
      <trkpt lat="42.43443" lon="0.03158">
        <ele>880.8</ele>
        <time>2016-07-31T08:07:46Z</time>
      </trkpt>
      <trkpt lat="42.43441" lon="0.03152">
        <ele>881.5</ele>
        <time>2016-07-31T08:07:48Z</time>
      </trkpt>
      <trkpt lat="42.4344" lon="0.03145">
        <ele>882.4</ele>
        <time>2016-07-31T08:07:50Z</time>
      </trkpt>
      <trkpt lat="42.43439" lon="0.03139">
        <ele>883.3</ele>
        <time>2016-07-31T08:07:52Z</time>
      </trkpt>
      <trkpt lat="42.43439" lon="0.03132">
        <ele>884.4</ele>
        <time>2016-07-31T08:07:54Z</time>
      </trkpt>
      <trkpt lat="42.43439" lon="0.03129">
        <ele>885</ele>
        <time>2016-07-31T08:07:55Z</time>
      </trkpt>
      <trkpt lat="42.4344" lon="0.03122">
        <ele>886.3</ele>
        <time>2016-07-31T08:07:57Z</time>
      </trkpt>
      <trkpt lat="42.43439" lon="0.03115">
        <ele>887.6</ele>
        <time>2016-07-31T08:07:59Z</time>
      </trkpt>
      <trkpt lat="42.43438" lon="0.03109">
        <ele>888.7</ele>
        <time>2016-07-31T08:08:01Z</time>
      </trkpt>
      <trkpt lat="42.43436" lon="0.03103">
        <ele>889.4</ele>
        <time>2016-07-31T08:08:03Z</time>
      </trkpt>
      <trkpt lat="42.43434" lon="0.03097">
        <ele>889.8</ele>
        <time>2016-07-31T08:08:05Z</time>
      </trkpt>
      <trkpt lat="42.43431" lon="0.03092">
        <ele>889.9</ele>
        <time>2016-07-31T08:08:07Z</time>
      </trkpt>
      <trkpt lat="42.43428" lon="0.03087">
        <ele>890</ele>
        <time>2016-07-31T08:08:09Z</time>
      </trkpt>
      <trkpt lat="42.43425" lon="0.03082">
        <ele>890</ele>
        <time>2016-07-31T08:08:11Z</time>
      </trkpt>
      <trkpt lat="42.43423" lon="0.03076">
        <ele>890.1</ele>
        <time>2016-07-31T08:08:13Z</time>
      </trkpt>
      <trkpt lat="42.43421" lon="0.03071">
        <ele>890.2</ele>
        <time>2016-07-31T08:08:15Z</time>
      </trkpt>
      <trkpt lat="42.43419" lon="0.03066">
        <ele>890.3</ele>
        <time>2016-07-31T08:08:17Z</time>
      </trkpt>
      <trkpt lat="42.43417" lon="0.03061">
        <ele>890.3</ele>
        <time>2016-07-31T08:08:19Z</time>
      </trkpt>
      <trkpt lat="42.43415" lon="0.03055">
        <ele>890.3</ele>
        <time>2016-07-31T08:08:21Z</time>
      </trkpt>
      <trkpt lat="42.43413" lon="0.03049">
        <ele>890.2</ele>
        <time>2016-07-31T08:08:23Z</time>
      </trkpt>
      <trkpt lat="42.43411" lon="0.03044">
        <ele>890</ele>
        <time>2016-07-31T08:08:25Z</time>
      </trkpt>
      <trkpt lat="42.43409" lon="0.03038">
        <ele>890.2</ele>
        <time>2016-07-31T08:08:27Z</time>
      </trkpt>
      <trkpt lat="42.43406" lon="0.03032">
        <ele>890.3</ele>
        <time>2016-07-31T08:08:29Z</time>
      </trkpt>
      <trkpt lat="42.43404" lon="0.03026">
        <ele>890.2</ele>
        <time>2016-07-31T08:08:31Z</time>
      </trkpt>
      <trkpt lat="42.43402" lon="0.03022">
        <ele>889.9</ele>
        <time>2016-07-31T08:08:33Z</time>
      </trkpt>
      <trkpt lat="42.434" lon="0.03017">
        <ele>889.9</ele>
        <time>2016-07-31T08:08:35Z</time>
      </trkpt>
      <trkpt lat="42.43398" lon="0.03011">
        <ele>890</ele>
        <time>2016-07-31T08:08:37Z</time>
      </trkpt>
      <trkpt lat="42.43396" lon="0.03006">
        <ele>889.9</ele>
        <time>2016-07-31T08:08:39Z</time>
      </trkpt>
      <trkpt lat="42.43393" lon="0.03001">
        <ele>889.5</ele>
        <time>2016-07-31T08:08:41Z</time>
      </trkpt>
      <trkpt lat="42.43391" lon="0.02997">
        <ele>889</ele>
        <time>2016-07-31T08:08:43Z</time>
      </trkpt>
      <trkpt lat="42.43387" lon="0.02993">
        <ele>888</ele>
        <time>2016-07-31T08:08:45Z</time>
      </trkpt>
      <trkpt lat="42.43385" lon="0.02988">
        <ele>887.4</ele>
        <time>2016-07-31T08:08:47Z</time>
      </trkpt>
      <trkpt lat="42.43383" lon="0.02982">
        <ele>887.6</ele>
        <time>2016-07-31T08:08:49Z</time>
      </trkpt>
      <trkpt lat="42.43381" lon="0.02976">
        <ele>887.8</ele>
        <time>2016-07-31T08:08:51Z</time>
      </trkpt>
      <trkpt lat="42.4338" lon="0.02972">
        <ele>887.6</ele>
        <time>2016-07-31T08:08:52Z</time>
      </trkpt>
      <trkpt lat="42.43379" lon="0.02969">
        <ele>887.5</ele>
        <time>2016-07-31T08:08:53Z</time>
      </trkpt>
      <trkpt lat="42.43378" lon="0.02966">
        <ele>887.3</ele>
        <time>2016-07-31T08:08:54Z</time>
      </trkpt>
      <trkpt lat="42.43376" lon="0.0296">
        <ele>887.1</ele>
        <time>2016-07-31T08:08:56Z</time>
      </trkpt>
      <trkpt lat="42.43374" lon="0.02954">
        <ele>887.6</ele>
        <time>2016-07-31T08:08:58Z</time>
      </trkpt>
      <trkpt lat="42.43373" lon="0.02946">
        <ele>888.6</ele>
        <time>2016-07-31T08:09:00Z</time>
      </trkpt>
      <trkpt lat="42.43373" lon="0.02943">
        <ele>889.2</ele>
        <time>2016-07-31T08:09:01Z</time>
      </trkpt>
      <trkpt lat="42.43373" lon="0.02936">
        <ele>890.3</ele>
        <time>2016-07-31T08:09:03Z</time>
      </trkpt>
      <trkpt lat="42.43373" lon="0.02929">
        <ele>891.4</ele>
        <time>2016-07-31T08:09:05Z</time>
      </trkpt>
      <trkpt lat="42.43373" lon="0.02923">
        <ele>892.6</ele>
        <time>2016-07-31T08:09:07Z</time>
      </trkpt>
      <trkpt lat="42.43373" lon="0.02916">
        <ele>893.8</ele>
        <time>2016-07-31T08:09:09Z</time>
      </trkpt>
      <trkpt lat="42.43374" lon="0.02909">
        <ele>895</ele>
        <time>2016-07-31T08:09:11Z</time>
      </trkpt>
      <trkpt lat="42.43375" lon="0.02902">
        <ele>896.4</ele>
        <time>2016-07-31T08:09:13Z</time>
      </trkpt>
      <trkpt lat="42.43375" lon="0.02898">
        <ele>897.1</ele>
        <time>2016-07-31T08:09:14Z</time>
      </trkpt>
      <trkpt lat="42.43375" lon="0.02891">
        <ele>898.3</ele>
        <time>2016-07-31T08:09:16Z</time>
      </trkpt>
      <trkpt lat="42.43376" lon="0.02884">
        <ele>899.7</ele>
        <time>2016-07-31T08:09:18Z</time>
      </trkpt>
      <trkpt lat="42.43376" lon="0.0288">
        <ele>900.6</ele>
        <time>2016-07-31T08:09:19Z</time>
      </trkpt>
      <trkpt lat="42.43377" lon="0.02873">
        <ele>902.6</ele>
        <time>2016-07-31T08:09:21Z</time>
      </trkpt>
      <trkpt lat="42.43378" lon="0.0287">
        <ele>904.2</ele>
        <time>2016-07-31T08:09:22Z</time>
      </trkpt>
      <trkpt lat="42.43378" lon="0.02866">
        <ele>905.8</ele>
        <time>2016-07-31T08:09:23Z</time>
      </trkpt>
      <trkpt lat="42.43379" lon="0.02862">
        <ele>907.3</ele>
        <time>2016-07-31T08:09:24Z</time>
      </trkpt>
      <trkpt lat="42.43379" lon="0.02859">
        <ele>908.8</ele>
        <time>2016-07-31T08:09:25Z</time>
      </trkpt>
      <trkpt lat="42.4338" lon="0.02855">
        <ele>910.3</ele>
        <time>2016-07-31T08:09:26Z</time>
      </trkpt>
      <trkpt lat="42.4338" lon="0.02851">
        <ele>911.8</ele>
        <time>2016-07-31T08:09:27Z</time>
      </trkpt>
      <trkpt lat="42.43381" lon="0.02847">
        <ele>913.3</ele>
        <time>2016-07-31T08:09:28Z</time>
      </trkpt>
      <trkpt lat="42.43381" lon="0.02843">
        <ele>914.8</ele>
        <time>2016-07-31T08:09:29Z</time>
      </trkpt>
      <trkpt lat="42.43382" lon="0.0284">
        <ele>916.4</ele>
        <time>2016-07-31T08:09:30Z</time>
      </trkpt>
      <trkpt lat="42.43383" lon="0.02836">
        <ele>917.8</ele>
        <time>2016-07-31T08:09:31Z</time>
      </trkpt>
      <trkpt lat="42.43383" lon="0.02832">
        <ele>919.3</ele>
        <time>2016-07-31T08:09:32Z</time>
      </trkpt>
      <trkpt lat="42.43384" lon="0.02829">
        <ele>920.7</ele>
        <time>2016-07-31T08:09:33Z</time>
      </trkpt>
      <trkpt lat="42.43385" lon="0.02825">
        <ele>922.1</ele>
        <time>2016-07-31T08:09:34Z</time>
      </trkpt>
      <trkpt lat="42.43385" lon="0.02821">
        <ele>923.5</ele>
        <time>2016-07-31T08:09:35Z</time>
      </trkpt>
      <trkpt lat="42.43386" lon="0.02818">
        <ele>924.8</ele>
        <time>2016-07-31T08:09:36Z</time>
      </trkpt>
      <trkpt lat="42.43387" lon="0.02814">
        <ele>926.2</ele>
        <time>2016-07-31T08:09:37Z</time>
      </trkpt>
      <trkpt lat="42.43387" lon="0.02811">
        <ele>927.5</ele>
        <time>2016-07-31T08:09:38Z</time>
      </trkpt>
      <trkpt lat="42.43388" lon="0.02807">
        <ele>928.8</ele>
        <time>2016-07-31T08:09:39Z</time>
      </trkpt>
      <trkpt lat="42.4339" lon="0.028">
        <ele>931.2</ele>
        <time>2016-07-31T08:09:41Z</time>
      </trkpt>
      <trkpt lat="42.4339" lon="0.02797">
        <ele>932.4</ele>
        <time>2016-07-31T08:09:42Z</time>
      </trkpt>
      <trkpt lat="42.4339" lon="0.02793">
        <ele>933.7</ele>
        <time>2016-07-31T08:09:43Z</time>
      </trkpt>
      <trkpt lat="42.4339" lon="0.02789">
        <ele>935</ele>
        <time>2016-07-31T08:09:44Z</time>
      </trkpt>
      <trkpt lat="42.4339" lon="0.02782">
        <ele>937.8</ele>
        <time>2016-07-31T08:09:46Z</time>
      </trkpt>
      <trkpt lat="42.43389" lon="0.02778">
        <ele>939.3</ele>
        <time>2016-07-31T08:09:47Z</time>
      </trkpt>
      <trkpt lat="42.43388" lon="0.02774">
        <ele>940.7</ele>
        <time>2016-07-31T08:09:48Z</time>
      </trkpt>
      <trkpt lat="42.43387" lon="0.0277">
        <ele>942.2</ele>
        <time>2016-07-31T08:09:49Z</time>
      </trkpt>
      <trkpt lat="42.43386" lon="0.02767">
        <ele>943.4</ele>
        <time>2016-07-31T08:09:50Z</time>
      </trkpt>
      <trkpt lat="42.43384" lon="0.02764">
        <ele>944.5</ele>
        <time>2016-07-31T08:09:51Z</time>
      </trkpt>
      <trkpt lat="42.43382" lon="0.02762">
        <ele>945.4</ele>
        <time>2016-07-31T08:09:52Z</time>
      </trkpt>
      <trkpt lat="42.4338" lon="0.02759">
        <ele>946.2</ele>
        <time>2016-07-31T08:09:53Z</time>
      </trkpt>
      <trkpt lat="42.43376" lon="0.02755">
        <ele>947.7</ele>
        <time>2016-07-31T08:09:55Z</time>
      </trkpt>
      <trkpt lat="42.43373" lon="0.02754">
        <ele>947.8</ele>
        <time>2016-07-31T08:09:56Z</time>
      </trkpt>
      <trkpt lat="42.4337" lon="0.02753">
        <ele>947.5</ele>
        <time>2016-07-31T08:09:57Z</time>
      </trkpt>
      <trkpt lat="42.43367" lon="0.02752">
        <ele>947.1</ele>
        <time>2016-07-31T08:09:58Z</time>
      </trkpt>
      <trkpt lat="42.43364" lon="0.02752">
        <ele>946.3</ele>
        <time>2016-07-31T08:09:59Z</time>
      </trkpt>
      <trkpt lat="42.43361" lon="0.02752">
        <ele>945.2</ele>
        <time>2016-07-31T08:10:00Z</time>
      </trkpt>
      <trkpt lat="42.43359" lon="0.02753">
        <ele>944.1</ele>
        <time>2016-07-31T08:10:01Z</time>
      </trkpt>
      <trkpt lat="42.43356" lon="0.02754">
        <ele>942.9</ele>
        <time>2016-07-31T08:10:02Z</time>
      </trkpt>
      <trkpt lat="42.43353" lon="0.02754">
        <ele>941.9</ele>
        <time>2016-07-31T08:10:03Z</time>
      </trkpt>
      <trkpt lat="42.4335" lon="0.02754">
        <ele>941</ele>
        <time>2016-07-31T08:10:04Z</time>
      </trkpt>
      <trkpt lat="42.43345" lon="0.02754">
        <ele>939.5</ele>
        <time>2016-07-31T08:10:06Z</time>
      </trkpt>
      <trkpt lat="42.4334" lon="0.02755">
        <ele>937.8</ele>
        <time>2016-07-31T08:10:08Z</time>
      </trkpt>
      <trkpt lat="42.43335" lon="0.02756">
        <ele>936</ele>
        <time>2016-07-31T08:10:10Z</time>
      </trkpt>
      <trkpt lat="42.43331" lon="0.02757">
        <ele>934.5</ele>
        <time>2016-07-31T08:10:12Z</time>
      </trkpt>
      <trkpt lat="42.43326" lon="0.02756">
        <ele>933.6</ele>
        <time>2016-07-31T08:10:14Z</time>
      </trkpt>
      <trkpt lat="42.43323" lon="0.02757">
        <ele>932.2</ele>
        <time>2016-07-31T08:10:16Z</time>
      </trkpt>
      <trkpt lat="42.43318" lon="0.02758">
        <ele>930.3</ele>
        <time>2016-07-31T08:10:18Z</time>
      </trkpt>
      <trkpt lat="42.43313" lon="0.0276">
        <ele>928.1</ele>
        <time>2016-07-31T08:10:20Z</time>
      </trkpt>
      <trkpt lat="42.43308" lon="0.02762">
        <ele>926</ele>
        <time>2016-07-31T08:10:22Z</time>
      </trkpt>
      <trkpt lat="42.43303" lon="0.02764">
        <ele>924</ele>
        <time>2016-07-31T08:10:24Z</time>
      </trkpt>
      <trkpt lat="42.43298" lon="0.02763">
        <ele>922.8</ele>
        <time>2016-07-31T08:10:26Z</time>
      </trkpt>
      <trkpt lat="42.43294" lon="0.02761">
        <ele>922.4</ele>
        <time>2016-07-31T08:10:28Z</time>
      </trkpt>
      <trkpt lat="42.4329" lon="0.02757">
        <ele>922.6</ele>
        <time>2016-07-31T08:10:30Z</time>
      </trkpt>
      <trkpt lat="42.43287" lon="0.02752">
        <ele>923.4</ele>
        <time>2016-07-31T08:10:32Z</time>
      </trkpt>
      <trkpt lat="42.43284" lon="0.02747">
        <ele>924.5</ele>
        <time>2016-07-31T08:10:34Z</time>
      </trkpt>
      <trkpt lat="42.43281" lon="0.02742">
        <ele>925.3</ele>
        <time>2016-07-31T08:10:36Z</time>
      </trkpt>
      <trkpt lat="42.43278" lon="0.02737">
        <ele>926.3</ele>
        <time>2016-07-31T08:10:38Z</time>
      </trkpt>
      <trkpt lat="42.43276" lon="0.02731">
        <ele>927.4</ele>
        <time>2016-07-31T08:10:40Z</time>
      </trkpt>
      <trkpt lat="42.43273" lon="0.02726">
        <ele>928.4</ele>
        <time>2016-07-31T08:10:42Z</time>
      </trkpt>
      <trkpt lat="42.4327" lon="0.02721">
        <ele>929.1</ele>
        <time>2016-07-31T08:10:44Z</time>
      </trkpt>
      <trkpt lat="42.43267" lon="0.02716">
        <ele>929.7</ele>
        <time>2016-07-31T08:10:46Z</time>
      </trkpt>
      <trkpt lat="42.43264" lon="0.02711">
        <ele>930.4</ele>
        <time>2016-07-31T08:10:48Z</time>
      </trkpt>
      <trkpt lat="42.43261" lon="0.02706">
        <ele>931.4</ele>
        <time>2016-07-31T08:10:50Z</time>
      </trkpt>
      <trkpt lat="42.43258" lon="0.02702">
        <ele>932.7</ele>
        <time>2016-07-31T08:10:52Z</time>
      </trkpt>
      <trkpt lat="42.43256" lon="0.02697">
        <ele>933.8</ele>
        <time>2016-07-31T08:10:54Z</time>
      </trkpt>
      <trkpt lat="42.43253" lon="0.02692">
        <ele>935</ele>
        <time>2016-07-31T08:10:56Z</time>
      </trkpt>
      <trkpt lat="42.43251" lon="0.02688">
        <ele>936.3</ele>
        <time>2016-07-31T08:10:58Z</time>
      </trkpt>
      <trkpt lat="42.43248" lon="0.02682">
        <ele>938</ele>
        <time>2016-07-31T08:11:00Z</time>
      </trkpt>
      <trkpt lat="42.43246" lon="0.02677">
        <ele>939.6</ele>
        <time>2016-07-31T08:11:02Z</time>
      </trkpt>
      <trkpt lat="42.43244" lon="0.02672">
        <ele>940.9</ele>
        <time>2016-07-31T08:11:04Z</time>
      </trkpt>
      <trkpt lat="42.43241" lon="0.02668">
        <ele>942.1</ele>
        <time>2016-07-31T08:11:06Z</time>
      </trkpt>
      <trkpt lat="42.43238" lon="0.02663">
        <ele>943.4</ele>
        <time>2016-07-31T08:11:08Z</time>
      </trkpt>
      <trkpt lat="42.43236" lon="0.02658">
        <ele>944.8</ele>
        <time>2016-07-31T08:11:10Z</time>
      </trkpt>
      <trkpt lat="42.43233" lon="0.02653">
        <ele>946.5</ele>
        <time>2016-07-31T08:11:12Z</time>
      </trkpt>
      <trkpt lat="42.4323" lon="0.02648">
        <ele>948</ele>
        <time>2016-07-31T08:11:14Z</time>
      </trkpt>
      <trkpt lat="42.43228" lon="0.02645">
        <ele>948.9</ele>
        <time>2016-07-31T08:11:15Z</time>
      </trkpt>
      <trkpt lat="42.43226" lon="0.02642">
        <ele>949.7</ele>
        <time>2016-07-31T08:11:16Z</time>
      </trkpt>
      <trkpt lat="42.43224" lon="0.02639">
        <ele>950.3</ele>
        <time>2016-07-31T08:11:17Z</time>
      </trkpt>
      <trkpt lat="42.43221" lon="0.02635">
        <ele>951.1</ele>
        <time>2016-07-31T08:11:19Z</time>
      </trkpt>
      <trkpt lat="42.43216" lon="0.02632">
        <ele>951.1</ele>
        <time>2016-07-31T08:11:21Z</time>
      </trkpt>
      <trkpt lat="42.43213" lon="0.0263">
        <ele>951</ele>
        <time>2016-07-31T08:11:22Z</time>
      </trkpt>
      <trkpt lat="42.43211" lon="0.02629">
        <ele>951</ele>
        <time>2016-07-31T08:11:23Z</time>
      </trkpt>
      <trkpt lat="42.43206" lon="0.02626">
        <ele>950.6</ele>
        <time>2016-07-31T08:11:25Z</time>
      </trkpt>
      <trkpt lat="42.43202" lon="0.02623">
        <ele>949.8</ele>
        <time>2016-07-31T08:11:27Z</time>
      </trkpt>
      <trkpt lat="42.43198" lon="0.02619">
        <ele>949.3</ele>
        <time>2016-07-31T08:11:29Z</time>
      </trkpt>
      <trkpt lat="42.43194" lon="0.02615">
        <ele>948.9</ele>
        <time>2016-07-31T08:11:31Z</time>
      </trkpt>
      <trkpt lat="42.4319" lon="0.02612">
        <ele>948.2</ele>
        <time>2016-07-31T08:11:33Z</time>
      </trkpt>
      <trkpt lat="42.43185" lon="0.02609">
        <ele>947</ele>
        <time>2016-07-31T08:11:35Z</time>
      </trkpt>
      <trkpt lat="42.43181" lon="0.02607">
        <ele>945.5</ele>
        <time>2016-07-31T08:11:37Z</time>
      </trkpt>
      <trkpt lat="42.43176" lon="0.02606">
        <ele>944</ele>
        <time>2016-07-31T08:11:39Z</time>
      </trkpt>
      <trkpt lat="42.43172" lon="0.02604">
        <ele>942.8</ele>
        <time>2016-07-31T08:11:41Z</time>
      </trkpt>
      <trkpt lat="42.43168" lon="0.02601">
        <ele>941.8</ele>
        <time>2016-07-31T08:11:43Z</time>
      </trkpt>
      <trkpt lat="42.43165" lon="0.02598">
        <ele>941.6</ele>
        <time>2016-07-31T08:11:45Z</time>
      </trkpt>
      <trkpt lat="42.4316" lon="0.02595">
        <ele>940.7</ele>
        <time>2016-07-31T08:11:47Z</time>
      </trkpt>
      <trkpt lat="42.43156" lon="0.02592">
        <ele>939.9</ele>
        <time>2016-07-31T08:11:49Z</time>
      </trkpt>
      <trkpt lat="42.43152" lon="0.02589">
        <ele>939.2</ele>
        <time>2016-07-31T08:11:51Z</time>
      </trkpt>
      <trkpt lat="42.43147" lon="0.02587">
        <ele>937.8</ele>
        <time>2016-07-31T08:11:53Z</time>
      </trkpt>
      <trkpt lat="42.43143" lon="0.02585">
        <ele>936.3</ele>
        <time>2016-07-31T08:11:55Z</time>
      </trkpt>
      <trkpt lat="42.43138" lon="0.02583">
        <ele>935.2</ele>
        <time>2016-07-31T08:11:57Z</time>
      </trkpt>
      <trkpt lat="42.43136" lon="0.02581">
        <ele>934.6</ele>
        <time>2016-07-31T08:11:58Z</time>
      </trkpt>
      <trkpt lat="42.43133" lon="0.0258">
        <ele>934</ele>
        <time>2016-07-31T08:11:59Z</time>
      </trkpt>
      <trkpt lat="42.43128" lon="0.02577">
        <ele>932.8</ele>
        <time>2016-07-31T08:12:01Z</time>
      </trkpt>
      <trkpt lat="42.43124" lon="0.02574">
        <ele>932.4</ele>
        <time>2016-07-31T08:12:03Z</time>
      </trkpt>
      <trkpt lat="42.43121" lon="0.02572">
        <ele>932.4</ele>
        <time>2016-07-31T08:12:04Z</time>
      </trkpt>
      <trkpt lat="42.43117" lon="0.02569">
        <ele>932.5</ele>
        <time>2016-07-31T08:12:06Z</time>
      </trkpt>
      <trkpt lat="42.43113" lon="0.02564">
        <ele>932.8</ele>
        <time>2016-07-31T08:12:08Z</time>
      </trkpt>
      <trkpt lat="42.4311" lon="0.02562">
        <ele>932.9</ele>
        <time>2016-07-31T08:12:09Z</time>
      </trkpt>
      <trkpt lat="42.43106" lon="0.02557">
        <ele>933.1</ele>
        <time>2016-07-31T08:12:11Z</time>
      </trkpt>
      <trkpt lat="42.43103" lon="0.02552">
        <ele>933.2</ele>
        <time>2016-07-31T08:12:13Z</time>
      </trkpt>
      <trkpt lat="42.43101" lon="0.02549">
        <ele>933.4</ele>
        <time>2016-07-31T08:12:14Z</time>
      </trkpt>
      <trkpt lat="42.43099" lon="0.02546">
        <ele>933.6</ele>
        <time>2016-07-31T08:12:15Z</time>
      </trkpt>
      <trkpt lat="42.43098" lon="0.02543">
        <ele>933.9</ele>
        <time>2016-07-31T08:12:16Z</time>
      </trkpt>
      <trkpt lat="42.43096" lon="0.02539">
        <ele>934</ele>
        <time>2016-07-31T08:12:17Z</time>
      </trkpt>
      <trkpt lat="42.43095" lon="0.02536">
        <ele>934</ele>
        <time>2016-07-31T08:12:18Z</time>
      </trkpt>
      <trkpt lat="42.43093" lon="0.02533">
        <ele>934</ele>
        <time>2016-07-31T08:12:19Z</time>
      </trkpt>
      <trkpt lat="42.43091" lon="0.0253">
        <ele>934</ele>
        <time>2016-07-31T08:12:20Z</time>
      </trkpt>
      <trkpt lat="42.4309" lon="0.02526">
        <ele>934.2</ele>
        <time>2016-07-31T08:12:21Z</time>
      </trkpt>
      <trkpt lat="42.43088" lon="0.02522">
        <ele>934.4</ele>
        <time>2016-07-31T08:12:22Z</time>
      </trkpt>
      <trkpt lat="42.43087" lon="0.02519">
        <ele>934.8</ele>
        <time>2016-07-31T08:12:23Z</time>
      </trkpt>
      <trkpt lat="42.43086" lon="0.02515">
        <ele>935.1</ele>
        <time>2016-07-31T08:12:24Z</time>
      </trkpt>
      <trkpt lat="42.43084" lon="0.02511">
        <ele>935.4</ele>
        <time>2016-07-31T08:12:25Z</time>
      </trkpt>
      <trkpt lat="42.43083" lon="0.02507">
        <ele>935.7</ele>
        <time>2016-07-31T08:12:26Z</time>
      </trkpt>
      <trkpt lat="42.43081" lon="0.02504">
        <ele>935.9</ele>
        <time>2016-07-31T08:12:27Z</time>
      </trkpt>
      <trkpt lat="42.43079" lon="0.025">
        <ele>936.3</ele>
        <time>2016-07-31T08:12:28Z</time>
      </trkpt>
      <trkpt lat="42.43078" lon="0.02496">
        <ele>936.6</ele>
        <time>2016-07-31T08:12:29Z</time>
      </trkpt>
      <trkpt lat="42.43076" lon="0.02492">
        <ele>936.9</ele>
        <time>2016-07-31T08:12:30Z</time>
      </trkpt>
      <trkpt lat="42.43074" lon="0.02489">
        <ele>937.2</ele>
        <time>2016-07-31T08:12:31Z</time>
      </trkpt>
      <trkpt lat="42.43073" lon="0.02485">
        <ele>937.7</ele>
        <time>2016-07-31T08:12:32Z</time>
      </trkpt>
      <trkpt lat="42.43072" lon="0.02481">
        <ele>938.6</ele>
        <time>2016-07-31T08:12:33Z</time>
      </trkpt>
      <trkpt lat="42.43071" lon="0.02476">
        <ele>939.6</ele>
        <time>2016-07-31T08:12:34Z</time>
      </trkpt>
      <trkpt lat="42.43071" lon="0.02472">
        <ele>940.8</ele>
        <time>2016-07-31T08:12:35Z</time>
      </trkpt>
      <trkpt lat="42.43071" lon="0.02467">
        <ele>942.1</ele>
        <time>2016-07-31T08:12:36Z</time>
      </trkpt>
      <trkpt lat="42.43071" lon="0.02462">
        <ele>943.5</ele>
        <time>2016-07-31T08:12:37Z</time>
      </trkpt>
      <trkpt lat="42.43072" lon="0.02458">
        <ele>944.9</ele>
        <time>2016-07-31T08:12:38Z</time>
      </trkpt>
      <trkpt lat="42.43072" lon="0.02453">
        <ele>946.4</ele>
        <time>2016-07-31T08:12:39Z</time>
      </trkpt>
      <trkpt lat="42.43073" lon="0.02448">
        <ele>948.1</ele>
        <time>2016-07-31T08:12:40Z</time>
      </trkpt>
      <trkpt lat="42.43073" lon="0.02443">
        <ele>949.6</ele>
        <time>2016-07-31T08:12:41Z</time>
      </trkpt>
      <trkpt lat="42.43074" lon="0.02438">
        <ele>951.1</ele>
        <time>2016-07-31T08:12:42Z</time>
      </trkpt>
      <trkpt lat="42.43074" lon="0.02434">
        <ele>952.5</ele>
        <time>2016-07-31T08:12:43Z</time>
      </trkpt>
      <trkpt lat="42.43075" lon="0.02429">
        <ele>953.8</ele>
        <time>2016-07-31T08:12:44Z</time>
      </trkpt>
      <trkpt lat="42.43075" lon="0.02424">
        <ele>955.1</ele>
        <time>2016-07-31T08:12:45Z</time>
      </trkpt>
      <trkpt lat="42.43074" lon="0.02419">
        <ele>956.4</ele>
        <time>2016-07-31T08:12:46Z</time>
      </trkpt>
      <trkpt lat="42.43073" lon="0.02414">
        <ele>957.6</ele>
        <time>2016-07-31T08:12:47Z</time>
      </trkpt>
      <trkpt lat="42.43072" lon="0.02409">
        <ele>958.8</ele>
        <time>2016-07-31T08:12:48Z</time>
      </trkpt>
      <trkpt lat="42.43071" lon="0.02404">
        <ele>960</ele>
        <time>2016-07-31T08:12:49Z</time>
      </trkpt>
      <trkpt lat="42.4307" lon="0.02399">
        <ele>961.4</ele>
        <time>2016-07-31T08:12:50Z</time>
      </trkpt>
      <trkpt lat="42.43068" lon="0.02394">
        <ele>962.6</ele>
        <time>2016-07-31T08:12:51Z</time>
      </trkpt>
      <trkpt lat="42.43066" lon="0.02389">
        <ele>963.8</ele>
        <time>2016-07-31T08:12:52Z</time>
      </trkpt>
      <trkpt lat="42.43064" lon="0.02385">
        <ele>965.1</ele>
        <time>2016-07-31T08:12:53Z</time>
      </trkpt>
      <trkpt lat="42.43062" lon="0.0238">
        <ele>966.4</ele>
        <time>2016-07-31T08:12:54Z</time>
      </trkpt>
      <trkpt lat="42.43059" lon="0.02375">
        <ele>967.8</ele>
        <time>2016-07-31T08:12:55Z</time>
      </trkpt>
      <trkpt lat="42.43057" lon="0.02371">
        <ele>969.3</ele>
        <time>2016-07-31T08:12:56Z</time>
      </trkpt>
      <trkpt lat="42.43055" lon="0.02367">
        <ele>970.7</ele>
        <time>2016-07-31T08:12:57Z</time>
      </trkpt>
      <trkpt lat="42.43052" lon="0.02363">
        <ele>971.9</ele>
        <time>2016-07-31T08:12:58Z</time>
      </trkpt>
      <trkpt lat="42.43049" lon="0.02359">
        <ele>973.1</ele>
        <time>2016-07-31T08:12:59Z</time>
      </trkpt>
      <trkpt lat="42.43046" lon="0.02357">
        <ele>974</ele>
        <time>2016-07-31T08:13:00Z</time>
      </trkpt>
      <trkpt lat="42.43042" lon="0.02355">
        <ele>974.6</ele>
        <time>2016-07-31T08:13:01Z</time>
      </trkpt>
      <trkpt lat="42.43038" lon="0.02353">
        <ele>974.4</ele>
        <time>2016-07-31T08:13:02Z</time>
      </trkpt>
      <trkpt lat="42.43034" lon="0.02352">
        <ele>973.9</ele>
        <time>2016-07-31T08:13:03Z</time>
      </trkpt>
      <trkpt lat="42.4303" lon="0.02351">
        <ele>973.3</ele>
        <time>2016-07-31T08:13:04Z</time>
      </trkpt>
      <trkpt lat="42.43024" lon="0.02354">
        <ele>971.4</ele>
        <time>2016-07-31T08:13:05Z</time>
      </trkpt>
      <trkpt lat="42.4302" lon="0.02354">
        <ele>970.3</ele>
        <time>2016-07-31T08:13:06Z</time>
      </trkpt>
      <trkpt lat="42.43016" lon="0.02355">
        <ele>969</ele>
        <time>2016-07-31T08:13:07Z</time>
      </trkpt>
      <trkpt lat="42.43012" lon="0.02352">
        <ele>969</ele>
        <time>2016-07-31T08:13:08Z</time>
      </trkpt>
      <trkpt lat="42.43007" lon="0.02353">
        <ele>968</ele>
        <time>2016-07-31T08:13:09Z</time>
      </trkpt>
      <trkpt lat="42.43003" lon="0.02353">
        <ele>967.2</ele>
        <time>2016-07-31T08:13:10Z</time>
      </trkpt>
      <trkpt lat="42.43" lon="0.02354">
        <ele>966</ele>
        <time>2016-07-31T08:13:11Z</time>
      </trkpt>
      <trkpt lat="42.42996" lon="0.02354">
        <ele>965</ele>
        <time>2016-07-31T08:13:12Z</time>
      </trkpt>
      <trkpt lat="42.42992" lon="0.02353">
        <ele>964.6</ele>
        <time>2016-07-31T08:13:13Z</time>
      </trkpt>
      <trkpt lat="42.42987" lon="0.02354">
        <ele>963.5</ele>
        <time>2016-07-31T08:13:14Z</time>
      </trkpt>
      <trkpt lat="42.42984" lon="0.02354">
        <ele>962.7</ele>
        <time>2016-07-31T08:13:15Z</time>
      </trkpt>
      <trkpt lat="42.4298" lon="0.02353">
        <ele>962.1</ele>
        <time>2016-07-31T08:13:16Z</time>
      </trkpt>
      <trkpt lat="42.42976" lon="0.02352">
        <ele>961.6</ele>
        <time>2016-07-31T08:13:17Z</time>
      </trkpt>
      <trkpt lat="42.42972" lon="0.02351">
        <ele>961.1</ele>
        <time>2016-07-31T08:13:18Z</time>
      </trkpt>
      <trkpt lat="42.42969" lon="0.0235">
        <ele>960.6</ele>
        <time>2016-07-31T08:13:19Z</time>
      </trkpt>
      <trkpt lat="42.42964" lon="0.02349">
        <ele>960.1</ele>
        <time>2016-07-31T08:13:20Z</time>
      </trkpt>
      <trkpt lat="42.42961" lon="0.02348">
        <ele>959.5</ele>
        <time>2016-07-31T08:13:21Z</time>
      </trkpt>
      <trkpt lat="42.42957" lon="0.02347">
        <ele>959.3</ele>
        <time>2016-07-31T08:13:22Z</time>
      </trkpt>
      <trkpt lat="42.42953" lon="0.02345">
        <ele>959.6</ele>
        <time>2016-07-31T08:13:23Z</time>
      </trkpt>
      <trkpt lat="42.4295" lon="0.02343">
        <ele>959.9</ele>
        <time>2016-07-31T08:13:24Z</time>
      </trkpt>
      <trkpt lat="42.42946" lon="0.0234">
        <ele>960.3</ele>
        <time>2016-07-31T08:13:25Z</time>
      </trkpt>
      <trkpt lat="42.42943" lon="0.02337">
        <ele>960.7</ele>
        <time>2016-07-31T08:13:26Z</time>
      </trkpt>
      <trkpt lat="42.42939" lon="0.02335">
        <ele>961</ele>
        <time>2016-07-31T08:13:27Z</time>
      </trkpt>
      <trkpt lat="42.42936" lon="0.02332">
        <ele>961.2</ele>
        <time>2016-07-31T08:13:28Z</time>
      </trkpt>
      <trkpt lat="42.42933" lon="0.02329">
        <ele>961.5</ele>
        <time>2016-07-31T08:13:29Z</time>
      </trkpt>
      <trkpt lat="42.4293" lon="0.02326">
        <ele>961.7</ele>
        <time>2016-07-31T08:13:30Z</time>
      </trkpt>
      <trkpt lat="42.42927" lon="0.02324">
        <ele>961.8</ele>
        <time>2016-07-31T08:13:31Z</time>
      </trkpt>
      <trkpt lat="42.42924" lon="0.0232">
        <ele>961.9</ele>
        <time>2016-07-31T08:13:32Z</time>
      </trkpt>
      <trkpt lat="42.42922" lon="0.02318">
        <ele>962</ele>
        <time>2016-07-31T08:13:33Z</time>
      </trkpt>
      <trkpt lat="42.42919" lon="0.02315">
        <ele>962</ele>
        <time>2016-07-31T08:13:34Z</time>
      </trkpt>
      <trkpt lat="42.42916" lon="0.02312">
        <ele>961.9</ele>
        <time>2016-07-31T08:13:35Z</time>
      </trkpt>
      <trkpt lat="42.42913" lon="0.02309">
        <ele>961.7</ele>
        <time>2016-07-31T08:13:36Z</time>
      </trkpt>
      <trkpt lat="42.4291" lon="0.02306">
        <ele>961.5</ele>
        <time>2016-07-31T08:13:37Z</time>
      </trkpt>
      <trkpt lat="42.42908" lon="0.02304">
        <ele>961.2</ele>
        <time>2016-07-31T08:13:38Z</time>
      </trkpt>
      <trkpt lat="42.42905" lon="0.02302">
        <ele>960.8</ele>
        <time>2016-07-31T08:13:39Z</time>
      </trkpt>
      <trkpt lat="42.42903" lon="0.02299">
        <ele>960.6</ele>
        <time>2016-07-31T08:13:40Z</time>
      </trkpt>
      <trkpt lat="42.429" lon="0.02296">
        <ele>960.3</ele>
        <time>2016-07-31T08:13:41Z</time>
      </trkpt>
      <trkpt lat="42.42898" lon="0.02293">
        <ele>960</ele>
        <time>2016-07-31T08:13:42Z</time>
      </trkpt>
      <trkpt lat="42.42896" lon="0.0229">
        <ele>960</ele>
        <time>2016-07-31T08:13:43Z</time>
      </trkpt>
      <trkpt lat="42.42894" lon="0.02286">
        <ele>960.3</ele>
        <time>2016-07-31T08:13:44Z</time>
      </trkpt>
      <trkpt lat="42.42892" lon="0.02283">
        <ele>960.5</ele>
        <time>2016-07-31T08:13:45Z</time>
      </trkpt>
      <trkpt lat="42.4289" lon="0.0228">
        <ele>960.6</ele>
        <time>2016-07-31T08:13:46Z</time>
      </trkpt>
      <trkpt lat="42.42887" lon="0.02277">
        <ele>960.7</ele>
        <time>2016-07-31T08:13:47Z</time>
      </trkpt>
      <trkpt lat="42.42885" lon="0.02274">
        <ele>960.8</ele>
        <time>2016-07-31T08:13:48Z</time>
      </trkpt>
      <trkpt lat="42.42883" lon="0.02271">
        <ele>960.9</ele>
        <time>2016-07-31T08:13:49Z</time>
      </trkpt>
      <trkpt lat="42.42881" lon="0.02267">
        <ele>961.1</ele>
        <time>2016-07-31T08:13:50Z</time>
      </trkpt>
      <trkpt lat="42.42878" lon="0.02264">
        <ele>961.3</ele>
        <time>2016-07-31T08:13:51Z</time>
      </trkpt>
      <trkpt lat="42.42876" lon="0.0226">
        <ele>961.6</ele>
        <time>2016-07-31T08:13:52Z</time>
      </trkpt>
      <trkpt lat="42.42874" lon="0.02256">
        <ele>962.2</ele>
        <time>2016-07-31T08:13:53Z</time>
      </trkpt>
      <trkpt lat="42.42872" lon="0.02252">
        <ele>963.1</ele>
        <time>2016-07-31T08:13:54Z</time>
      </trkpt>
      <trkpt lat="42.42871" lon="0.02248">
        <ele>963.9</ele>
        <time>2016-07-31T08:13:55Z</time>
      </trkpt>
      <trkpt lat="42.42869" lon="0.02244">
        <ele>964.8</ele>
        <time>2016-07-31T08:13:56Z</time>
      </trkpt>
      <trkpt lat="42.42867" lon="0.02241">
        <ele>965.6</ele>
        <time>2016-07-31T08:13:57Z</time>
      </trkpt>
      <trkpt lat="42.42865" lon="0.02237">
        <ele>966.2</ele>
        <time>2016-07-31T08:13:58Z</time>
      </trkpt>
      <trkpt lat="42.42863" lon="0.02233">
        <ele>966.9</ele>
        <time>2016-07-31T08:13:59Z</time>
      </trkpt>
      <trkpt lat="42.42861" lon="0.0223">
        <ele>967.5</ele>
        <time>2016-07-31T08:14:00Z</time>
      </trkpt>
      <trkpt lat="42.42859" lon="0.02226">
        <ele>968.1</ele>
        <time>2016-07-31T08:14:01Z</time>
      </trkpt>
      <trkpt lat="42.42857" lon="0.02222">
        <ele>968.6</ele>
        <time>2016-07-31T08:14:02Z</time>
      </trkpt>
      <trkpt lat="42.42854" lon="0.02218">
        <ele>969.1</ele>
        <time>2016-07-31T08:14:03Z</time>
      </trkpt>
      <trkpt lat="42.42853" lon="0.02215">
        <ele>969.5</ele>
        <time>2016-07-31T08:14:04Z</time>
      </trkpt>
      <trkpt lat="42.42851" lon="0.02211">
        <ele>969.9</ele>
        <time>2016-07-31T08:14:05Z</time>
      </trkpt>
      <trkpt lat="42.42849" lon="0.02208">
        <ele>970.3</ele>
        <time>2016-07-31T08:14:06Z</time>
      </trkpt>
      <trkpt lat="42.42847" lon="0.02204">
        <ele>970.9</ele>
        <time>2016-07-31T08:14:07Z</time>
      </trkpt>
      <trkpt lat="42.42845" lon="0.02202">
        <ele>971.2</ele>
        <time>2016-07-31T08:14:08Z</time>
      </trkpt>
      <trkpt lat="42.42842" lon="0.02199">
        <ele>971.4</ele>
        <time>2016-07-31T08:14:09Z</time>
      </trkpt>
      <trkpt lat="42.4284" lon="0.02196">
        <ele>971.6</ele>
        <time>2016-07-31T08:14:10Z</time>
      </trkpt>
      <trkpt lat="42.42837" lon="0.02194">
        <ele>971.7</ele>
        <time>2016-07-31T08:14:11Z</time>
      </trkpt>
      <trkpt lat="42.42834" lon="0.02191">
        <ele>971.7</ele>
        <time>2016-07-31T08:14:12Z</time>
      </trkpt>
      <trkpt lat="42.42832" lon="0.02189">
        <ele>971.7</ele>
        <time>2016-07-31T08:14:13Z</time>
      </trkpt>
      <trkpt lat="42.42829" lon="0.02187">
        <ele>971.6</ele>
        <time>2016-07-31T08:14:14Z</time>
      </trkpt>
      <trkpt lat="42.42826" lon="0.02185">
        <ele>971.4</ele>
        <time>2016-07-31T08:14:15Z</time>
      </trkpt>
      <trkpt lat="42.42823" lon="0.02183">
        <ele>971.2</ele>
        <time>2016-07-31T08:14:16Z</time>
      </trkpt>
      <trkpt lat="42.4282" lon="0.02181">
        <ele>970.9</ele>
        <time>2016-07-31T08:14:17Z</time>
      </trkpt>
      <trkpt lat="42.42817" lon="0.02179">
        <ele>970.7</ele>
        <time>2016-07-31T08:14:18Z</time>
      </trkpt>
      <trkpt lat="42.42815" lon="0.02176">
        <ele>970.5</ele>
        <time>2016-07-31T08:14:19Z</time>
      </trkpt>
      <trkpt lat="42.42812" lon="0.02174">
        <ele>970.2</ele>
        <time>2016-07-31T08:14:20Z</time>
      </trkpt>
      <trkpt lat="42.42809" lon="0.02172">
        <ele>970</ele>
        <time>2016-07-31T08:14:21Z</time>
      </trkpt>
      <trkpt lat="42.42807" lon="0.0217">
        <ele>969.6</ele>
        <time>2016-07-31T08:14:22Z</time>
      </trkpt>
      <trkpt lat="42.42804" lon="0.02168">
        <ele>969.3</ele>
        <time>2016-07-31T08:14:23Z</time>
      </trkpt>
      <trkpt lat="42.42802" lon="0.02166">
        <ele>968.9</ele>
        <time>2016-07-31T08:14:24Z</time>
      </trkpt>
      <trkpt lat="42.428" lon="0.02164">
        <ele>968.6</ele>
        <time>2016-07-31T08:14:25Z</time>
      </trkpt>
      <trkpt lat="42.42798" lon="0.02161">
        <ele>968.3</ele>
        <time>2016-07-31T08:14:26Z</time>
      </trkpt>
      <trkpt lat="42.42796" lon="0.02158">
        <ele>968</ele>
        <time>2016-07-31T08:14:27Z</time>
      </trkpt>
      <trkpt lat="42.42794" lon="0.02155">
        <ele>967.7</ele>
        <time>2016-07-31T08:14:28Z</time>
      </trkpt>
      <trkpt lat="42.42792" lon="0.02152">
        <ele>967.4</ele>
        <time>2016-07-31T08:14:29Z</time>
      </trkpt>
      <trkpt lat="42.4279" lon="0.02149">
        <ele>967.8</ele>
        <time>2016-07-31T08:14:30Z</time>
      </trkpt>
      <trkpt lat="42.42789" lon="0.02146">
        <ele>968.3</ele>
        <time>2016-07-31T08:14:31Z</time>
      </trkpt>
      <trkpt lat="42.42787" lon="0.02143">
        <ele>968.7</ele>
        <time>2016-07-31T08:14:32Z</time>
      </trkpt>
      <trkpt lat="42.42786" lon="0.02139">
        <ele>969.1</ele>
        <time>2016-07-31T08:14:33Z</time>
      </trkpt>
      <trkpt lat="42.42785" lon="0.02136">
        <ele>969.5</ele>
        <time>2016-07-31T08:14:34Z</time>
      </trkpt>
      <trkpt lat="42.42783" lon="0.02132">
        <ele>969.8</ele>
        <time>2016-07-31T08:14:35Z</time>
      </trkpt>
      <trkpt lat="42.42782" lon="0.02129">
        <ele>970.2</ele>
        <time>2016-07-31T08:14:36Z</time>
      </trkpt>
      <trkpt lat="42.42781" lon="0.02125">
        <ele>970.5</ele>
        <time>2016-07-31T08:14:37Z</time>
      </trkpt>
      <trkpt lat="42.42779" lon="0.02122">
        <ele>971.4</ele>
        <time>2016-07-31T08:14:38Z</time>
      </trkpt>
      <trkpt lat="42.42778" lon="0.02118">
        <ele>972.2</ele>
        <time>2016-07-31T08:14:39Z</time>
      </trkpt>
      <trkpt lat="42.42776" lon="0.02115">
        <ele>973.1</ele>
        <time>2016-07-31T08:14:40Z</time>
      </trkpt>
      <trkpt lat="42.42775" lon="0.02111">
        <ele>973.9</ele>
        <time>2016-07-31T08:14:41Z</time>
      </trkpt>
      <trkpt lat="42.42773" lon="0.02108">
        <ele>974.7</ele>
        <time>2016-07-31T08:14:42Z</time>
      </trkpt>
      <trkpt lat="42.42771" lon="0.02105">
        <ele>975.3</ele>
        <time>2016-07-31T08:14:43Z</time>
      </trkpt>
      <trkpt lat="42.4277" lon="0.02102">
        <ele>976</ele>
        <time>2016-07-31T08:14:44Z</time>
      </trkpt>
      <trkpt lat="42.42768" lon="0.02098">
        <ele>976.6</ele>
        <time>2016-07-31T08:14:45Z</time>
      </trkpt>
      <trkpt lat="42.42766" lon="0.02095">
        <ele>977.1</ele>
        <time>2016-07-31T08:14:46Z</time>
      </trkpt>
      <trkpt lat="42.42765" lon="0.02092">
        <ele>977.7</ele>
        <time>2016-07-31T08:14:47Z</time>
      </trkpt>
      <trkpt lat="42.42763" lon="0.02088">
        <ele>978.3</ele>
        <time>2016-07-31T08:14:48Z</time>
      </trkpt>
      <trkpt lat="42.42762" lon="0.02085">
        <ele>978.8</ele>
        <time>2016-07-31T08:14:49Z</time>
      </trkpt>
      <trkpt lat="42.4276" lon="0.02082">
        <ele>979.2</ele>
        <time>2016-07-31T08:14:50Z</time>
      </trkpt>
      <trkpt lat="42.42758" lon="0.02078">
        <ele>979.5</ele>
        <time>2016-07-31T08:14:51Z</time>
      </trkpt>
      <trkpt lat="42.42756" lon="0.02075">
        <ele>979.8</ele>
        <time>2016-07-31T08:14:52Z</time>
      </trkpt>
      <trkpt lat="42.42754" lon="0.02072">
        <ele>980.1</ele>
        <time>2016-07-31T08:14:53Z</time>
      </trkpt>
      <trkpt lat="42.42752" lon="0.02069">
        <ele>980.3</ele>
        <time>2016-07-31T08:14:54Z</time>
      </trkpt>
      <trkpt lat="42.4275" lon="0.02066">
        <ele>980.6</ele>
        <time>2016-07-31T08:14:55Z</time>
      </trkpt>
      <trkpt lat="42.42749" lon="0.02062">
        <ele>980.8</ele>
        <time>2016-07-31T08:14:56Z</time>
      </trkpt>
      <trkpt lat="42.42748" lon="0.02058">
        <ele>981.1</ele>
        <time>2016-07-31T08:14:57Z</time>
      </trkpt>
      <trkpt lat="42.42745" lon="0.02052">
        <ele>981.3</ele>
        <time>2016-07-31T08:14:59Z</time>
      </trkpt>
      <trkpt lat="42.42744" lon="0.0205">
        <ele>981.3</ele>
        <time>2016-07-31T08:15:00Z</time>
      </trkpt>
      <trkpt lat="42.42742" lon="0.02047">
        <ele>981.2</ele>
        <time>2016-07-31T08:15:01Z</time>
      </trkpt>
      <trkpt lat="42.4274" lon="0.02044">
        <ele>981.1</ele>
        <time>2016-07-31T08:15:02Z</time>
      </trkpt>
      <trkpt lat="42.42738" lon="0.02041">
        <ele>981</ele>
        <time>2016-07-31T08:15:03Z</time>
      </trkpt>
      <trkpt lat="42.42735" lon="0.02038">
        <ele>981.3</ele>
        <time>2016-07-31T08:15:04Z</time>
      </trkpt>
      <trkpt lat="42.42733" lon="0.02035">
        <ele>981.6</ele>
        <time>2016-07-31T08:15:05Z</time>
      </trkpt>
      <trkpt lat="42.42731" lon="0.02032">
        <ele>981.9</ele>
        <time>2016-07-31T08:15:06Z</time>
      </trkpt>
      <trkpt lat="42.42729" lon="0.0203">
        <ele>982.1</ele>
        <time>2016-07-31T08:15:07Z</time>
      </trkpt>
      <trkpt lat="42.42727" lon="0.02027">
        <ele>982.2</ele>
        <time>2016-07-31T08:15:08Z</time>
      </trkpt>
      <trkpt lat="42.42725" lon="0.02024">
        <ele>982.4</ele>
        <time>2016-07-31T08:15:09Z</time>
      </trkpt>
      <trkpt lat="42.42723" lon="0.02021">
        <ele>982.7</ele>
        <time>2016-07-31T08:15:10Z</time>
      </trkpt>
      <trkpt lat="42.42721" lon="0.02018">
        <ele>983</ele>
        <time>2016-07-31T08:15:11Z</time>
      </trkpt>
      <trkpt lat="42.42719" lon="0.02015">
        <ele>983.3</ele>
        <time>2016-07-31T08:15:12Z</time>
      </trkpt>
      <trkpt lat="42.42717" lon="0.02012">
        <ele>983.5</ele>
        <time>2016-07-31T08:15:13Z</time>
      </trkpt>
      <trkpt lat="42.42714" lon="0.02006">
        <ele>984</ele>
        <time>2016-07-31T08:15:15Z</time>
      </trkpt>
      <trkpt lat="42.42712" lon="0.02003">
        <ele>984.1</ele>
        <time>2016-07-31T08:15:16Z</time>
      </trkpt>
      <trkpt lat="42.4271" lon="0.02">
        <ele>984.3</ele>
        <time>2016-07-31T08:15:17Z</time>
      </trkpt>
      <trkpt lat="42.42708" lon="0.01997">
        <ele>984.5</ele>
        <time>2016-07-31T08:15:18Z</time>
      </trkpt>
      <trkpt lat="42.42706" lon="0.01994">
        <ele>985.1</ele>
        <time>2016-07-31T08:15:19Z</time>
      </trkpt>
      <trkpt lat="42.42704" lon="0.01991">
        <ele>985.7</ele>
        <time>2016-07-31T08:15:20Z</time>
      </trkpt>
      <trkpt lat="42.42702" lon="0.01988">
        <ele>986.2</ele>
        <time>2016-07-31T08:15:21Z</time>
      </trkpt>
      <trkpt lat="42.427" lon="0.01985">
        <ele>986.7</ele>
        <time>2016-07-31T08:15:22Z</time>
      </trkpt>
      <trkpt lat="42.42698" lon="0.01981">
        <ele>987.1</ele>
        <time>2016-07-31T08:15:23Z</time>
      </trkpt>
      <trkpt lat="42.42696" lon="0.01978">
        <ele>987.4</ele>
        <time>2016-07-31T08:15:24Z</time>
      </trkpt>
      <trkpt lat="42.42694" lon="0.01975">
        <ele>987.7</ele>
        <time>2016-07-31T08:15:25Z</time>
      </trkpt>
      <trkpt lat="42.42692" lon="0.01972">
        <ele>987.9</ele>
        <time>2016-07-31T08:15:26Z</time>
      </trkpt>
      <trkpt lat="42.42689" lon="0.01969">
        <ele>988</ele>
        <time>2016-07-31T08:15:27Z</time>
      </trkpt>
      <trkpt lat="42.42687" lon="0.01966">
        <ele>988.1</ele>
        <time>2016-07-31T08:15:28Z</time>
      </trkpt>
      <trkpt lat="42.42684" lon="0.01963">
        <ele>988</ele>
        <time>2016-07-31T08:15:29Z</time>
      </trkpt>
      <trkpt lat="42.42681" lon="0.0196">
        <ele>987.9</ele>
        <time>2016-07-31T08:15:30Z</time>
      </trkpt>
      <trkpt lat="42.42678" lon="0.01958">
        <ele>987.6</ele>
        <time>2016-07-31T08:15:31Z</time>
      </trkpt>
      <trkpt lat="42.42675" lon="0.01955">
        <ele>987.5</ele>
        <time>2016-07-31T08:15:32Z</time>
      </trkpt>
      <trkpt lat="42.42672" lon="0.01952">
        <ele>987.4</ele>
        <time>2016-07-31T08:15:33Z</time>
      </trkpt>
      <trkpt lat="42.42669" lon="0.01949">
        <ele>987.3</ele>
        <time>2016-07-31T08:15:34Z</time>
      </trkpt>
      <trkpt lat="42.42666" lon="0.01947">
        <ele>987</ele>
        <time>2016-07-31T08:15:35Z</time>
      </trkpt>
      <trkpt lat="42.42662" lon="0.01945">
        <ele>986.8</ele>
        <time>2016-07-31T08:15:36Z</time>
      </trkpt>
      <trkpt lat="42.42659" lon="0.01943">
        <ele>986.6</ele>
        <time>2016-07-31T08:15:37Z</time>
      </trkpt>
      <trkpt lat="42.42655" lon="0.01941">
        <ele>986.3</ele>
        <time>2016-07-31T08:15:38Z</time>
      </trkpt>
      <trkpt lat="42.42652" lon="0.0194">
        <ele>985.9</ele>
        <time>2016-07-31T08:15:39Z</time>
      </trkpt>
      <trkpt lat="42.42648" lon="0.01938">
        <ele>985.6</ele>
        <time>2016-07-31T08:15:40Z</time>
      </trkpt>
      <trkpt lat="42.42644" lon="0.01937">
        <ele>985.2</ele>
        <time>2016-07-31T08:15:41Z</time>
      </trkpt>
      <trkpt lat="42.4264" lon="0.01935">
        <ele>984.9</ele>
        <time>2016-07-31T08:15:42Z</time>
      </trkpt>
      <trkpt lat="42.42636" lon="0.01932">
        <ele>984.7</ele>
        <time>2016-07-31T08:15:43Z</time>
      </trkpt>
      <trkpt lat="42.42633" lon="0.01929">
        <ele>984.6</ele>
        <time>2016-07-31T08:15:44Z</time>
      </trkpt>
      <trkpt lat="42.4263" lon="0.01925">
        <ele>984.6</ele>
        <time>2016-07-31T08:15:45Z</time>
      </trkpt>
      <trkpt lat="42.42627" lon="0.01922">
        <ele>984.6</ele>
        <time>2016-07-31T08:15:46Z</time>
      </trkpt>
      <trkpt lat="42.42624" lon="0.01919">
        <ele>984.9</ele>
        <time>2016-07-31T08:15:47Z</time>
      </trkpt>
      <trkpt lat="42.42621" lon="0.01916">
        <ele>985.5</ele>
        <time>2016-07-31T08:15:48Z</time>
      </trkpt>
      <trkpt lat="42.42618" lon="0.01912">
        <ele>986</ele>
        <time>2016-07-31T08:15:49Z</time>
      </trkpt>
      <trkpt lat="42.42615" lon="0.01909">
        <ele>986.5</ele>
        <time>2016-07-31T08:15:50Z</time>
      </trkpt>
      <trkpt lat="42.42612" lon="0.01906">
        <ele>987</ele>
        <time>2016-07-31T08:15:51Z</time>
      </trkpt>
      <trkpt lat="42.42609" lon="0.01903">
        <ele>987.5</ele>
        <time>2016-07-31T08:15:52Z</time>
      </trkpt>
      <trkpt lat="42.42606" lon="0.019">
        <ele>987.9</ele>
        <time>2016-07-31T08:15:53Z</time>
      </trkpt>
      <trkpt lat="42.42604" lon="0.01897">
        <ele>988.2</ele>
        <time>2016-07-31T08:15:54Z</time>
      </trkpt>
      <trkpt lat="42.42601" lon="0.01895">
        <ele>988.4</ele>
        <time>2016-07-31T08:15:55Z</time>
      </trkpt>
      <trkpt lat="42.42598" lon="0.01892">
        <ele>988.7</ele>
        <time>2016-07-31T08:15:56Z</time>
      </trkpt>
      <trkpt lat="42.42596" lon="0.01889">
        <ele>988.9</ele>
        <time>2016-07-31T08:15:57Z</time>
      </trkpt>
      <trkpt lat="42.42594" lon="0.01886">
        <ele>989.1</ele>
        <time>2016-07-31T08:15:58Z</time>
      </trkpt>
      <trkpt lat="42.42591" lon="0.01883">
        <ele>989.3</ele>
        <time>2016-07-31T08:15:59Z</time>
      </trkpt>
      <trkpt lat="42.42589" lon="0.01879">
        <ele>989.4</ele>
        <time>2016-07-31T08:16:00Z</time>
      </trkpt>
      <trkpt lat="42.42587" lon="0.01876">
        <ele>989.5</ele>
        <time>2016-07-31T08:16:01Z</time>
      </trkpt>
      <trkpt lat="42.42584" lon="0.01873">
        <ele>989.7</ele>
        <time>2016-07-31T08:16:02Z</time>
      </trkpt>
      <trkpt lat="42.42582" lon="0.0187">
        <ele>989.9</ele>
        <time>2016-07-31T08:16:03Z</time>
      </trkpt>
      <trkpt lat="42.4258" lon="0.01867">
        <ele>990.1</ele>
        <time>2016-07-31T08:16:04Z</time>
      </trkpt>
      <trkpt lat="42.42577" lon="0.01864">
        <ele>990.3</ele>
        <time>2016-07-31T08:16:05Z</time>
      </trkpt>
      <trkpt lat="42.42574" lon="0.01862">
        <ele>990.4</ele>
        <time>2016-07-31T08:16:06Z</time>
      </trkpt>
      <trkpt lat="42.42571" lon="0.01859">
        <ele>990.5</ele>
        <time>2016-07-31T08:16:07Z</time>
      </trkpt>
      <trkpt lat="42.42569" lon="0.01858">
        <ele>990.6</ele>
        <time>2016-07-31T08:16:08Z</time>
      </trkpt>
      <trkpt lat="42.42566" lon="0.01856">
        <ele>990.6</ele>
        <time>2016-07-31T08:16:09Z</time>
      </trkpt>
      <trkpt lat="42.42563" lon="0.01854">
        <ele>990.7</ele>
        <time>2016-07-31T08:16:10Z</time>
      </trkpt>
      <trkpt lat="42.4256" lon="0.01852">
        <ele>990.7</ele>
        <time>2016-07-31T08:16:11Z</time>
      </trkpt>
      <trkpt lat="42.42557" lon="0.01849">
        <ele>990.8</ele>
        <time>2016-07-31T08:16:12Z</time>
      </trkpt>
      <trkpt lat="42.42555" lon="0.01847">
        <ele>990.8</ele>
        <time>2016-07-31T08:16:13Z</time>
      </trkpt>
      <trkpt lat="42.42553" lon="0.01845">
        <ele>990.9</ele>
        <time>2016-07-31T08:16:14Z</time>
      </trkpt>
      <trkpt lat="42.4255" lon="0.01843">
        <ele>990.9</ele>
        <time>2016-07-31T08:16:15Z</time>
      </trkpt>
      <trkpt lat="42.42548" lon="0.01841">
        <ele>990.9</ele>
        <time>2016-07-31T08:16:16Z</time>
      </trkpt>
      <trkpt lat="42.42545" lon="0.01838">
        <ele>990.9</ele>
        <time>2016-07-31T08:16:17Z</time>
      </trkpt>
      <trkpt lat="42.42543" lon="0.01836">
        <ele>990.9</ele>
        <time>2016-07-31T08:16:18Z</time>
      </trkpt>
      <trkpt lat="42.42539" lon="0.01832">
        <ele>992.1</ele>
        <time>2016-07-31T08:16:20Z</time>
      </trkpt>
      <trkpt lat="42.42535" lon="0.01826">
        <ele>993.5</ele>
        <time>2016-07-31T08:16:22Z</time>
      </trkpt>
      <trkpt lat="42.42534" lon="0.01823">
        <ele>994.2</ele>
        <time>2016-07-31T08:16:23Z</time>
      </trkpt>
      <trkpt lat="42.42533" lon="0.01819">
        <ele>994.8</ele>
        <time>2016-07-31T08:16:24Z</time>
      </trkpt>
      <trkpt lat="42.42532" lon="0.01816">
        <ele>995.4</ele>
        <time>2016-07-31T08:16:25Z</time>
      </trkpt>
      <trkpt lat="42.42531" lon="0.01812">
        <ele>996</ele>
        <time>2016-07-31T08:16:26Z</time>
      </trkpt>
      <trkpt lat="42.4253" lon="0.01808">
        <ele>996.7</ele>
        <time>2016-07-31T08:16:27Z</time>
      </trkpt>
      <trkpt lat="42.42529" lon="0.01803">
        <ele>997.3</ele>
        <time>2016-07-31T08:16:28Z</time>
      </trkpt>
      <trkpt lat="42.42529" lon="0.01799">
        <ele>997.7</ele>
        <time>2016-07-31T08:16:29Z</time>
      </trkpt>
      <trkpt lat="42.42529" lon="0.01794">
        <ele>998</ele>
        <time>2016-07-31T08:16:30Z</time>
      </trkpt>
      <trkpt lat="42.42529" lon="0.01789">
        <ele>998.2</ele>
        <time>2016-07-31T08:16:31Z</time>
      </trkpt>
      <trkpt lat="42.4253" lon="0.01784">
        <ele>998.3</ele>
        <time>2016-07-31T08:16:32Z</time>
      </trkpt>
      <trkpt lat="42.4253" lon="0.01779">
        <ele>998.4</ele>
        <time>2016-07-31T08:16:33Z</time>
      </trkpt>
      <trkpt lat="42.42531" lon="0.01774">
        <ele>998.5</ele>
        <time>2016-07-31T08:16:34Z</time>
      </trkpt>
      <trkpt lat="42.42532" lon="0.01769">
        <ele>998.6</ele>
        <time>2016-07-31T08:16:35Z</time>
      </trkpt>
      <trkpt lat="42.42532" lon="0.01765">
        <ele>998.6</ele>
        <time>2016-07-31T08:16:36Z</time>
      </trkpt>
      <trkpt lat="42.42533" lon="0.0176">
        <ele>998.7</ele>
        <time>2016-07-31T08:16:37Z</time>
      </trkpt>
      <trkpt lat="42.42533" lon="0.01756">
        <ele>998.8</ele>
        <time>2016-07-31T08:16:38Z</time>
      </trkpt>
      <trkpt lat="42.42534" lon="0.01751">
        <ele>999</ele>
        <time>2016-07-31T08:16:39Z</time>
      </trkpt>
      <trkpt lat="42.42534" lon="0.01746">
        <ele>999.2</ele>
        <time>2016-07-31T08:16:40Z</time>
      </trkpt>
      <trkpt lat="42.42534" lon="0.01742">
        <ele>999.5</ele>
        <time>2016-07-31T08:16:41Z</time>
      </trkpt>
      <trkpt lat="42.42534" lon="0.01737">
        <ele>999.8</ele>
        <time>2016-07-31T08:16:42Z</time>
      </trkpt>
      <trkpt lat="42.42534" lon="0.01732">
        <ele>1000.1</ele>
        <time>2016-07-31T08:16:43Z</time>
      </trkpt>
      <trkpt lat="42.42534" lon="0.01728">
        <ele>1000.4</ele>
        <time>2016-07-31T08:16:44Z</time>
      </trkpt>
      <trkpt lat="42.42534" lon="0.01723">
        <ele>1000.7</ele>
        <time>2016-07-31T08:16:45Z</time>
      </trkpt>
      <trkpt lat="42.42534" lon="0.01719">
        <ele>1001</ele>
        <time>2016-07-31T08:16:46Z</time>
      </trkpt>
      <trkpt lat="42.42534" lon="0.01714">
        <ele>1001.3</ele>
        <time>2016-07-31T08:16:47Z</time>
      </trkpt>
      <trkpt lat="42.42534" lon="0.0171">
        <ele>1001.6</ele>
        <time>2016-07-31T08:16:48Z</time>
      </trkpt>
      <trkpt lat="42.42535" lon="0.01705">
        <ele>1001.7</ele>
        <time>2016-07-31T08:16:49Z</time>
      </trkpt>
      <trkpt lat="42.42535" lon="0.01701">
        <ele>1001.7</ele>
        <time>2016-07-31T08:16:50Z</time>
      </trkpt>
      <trkpt lat="42.42535" lon="0.01696">
        <ele>1001.8</ele>
        <time>2016-07-31T08:16:51Z</time>
      </trkpt>
      <trkpt lat="42.42534" lon="0.01692">
        <ele>1001.9</ele>
        <time>2016-07-31T08:16:52Z</time>
      </trkpt>
      <trkpt lat="42.42535" lon="0.01688">
        <ele>1001.9</ele>
        <time>2016-07-31T08:16:53Z</time>
      </trkpt>
      <trkpt lat="42.42535" lon="0.01684">
        <ele>1001.9</ele>
        <time>2016-07-31T08:16:54Z</time>
      </trkpt>
      <trkpt lat="42.42535" lon="0.0168">
        <ele>1001.8</ele>
        <time>2016-07-31T08:16:55Z</time>
      </trkpt>
      <trkpt lat="42.42536" lon="0.01675">
        <ele>1001.6</ele>
        <time>2016-07-31T08:16:56Z</time>
      </trkpt>
      <trkpt lat="42.42536" lon="0.01671">
        <ele>1001.4</ele>
        <time>2016-07-31T08:16:57Z</time>
      </trkpt>
      <trkpt lat="42.42536" lon="0.01667">
        <ele>1001.4</ele>
        <time>2016-07-31T08:16:58Z</time>
      </trkpt>
      <trkpt lat="42.42536" lon="0.01663">
        <ele>1001.5</ele>
        <time>2016-07-31T08:16:59Z</time>
      </trkpt>
      <trkpt lat="42.42536" lon="0.01658">
        <ele>1001.6</ele>
        <time>2016-07-31T08:17:00Z</time>
      </trkpt>
      <trkpt lat="42.42536" lon="0.01654">
        <ele>1001.7</ele>
        <time>2016-07-31T08:17:01Z</time>
      </trkpt>
      <trkpt lat="42.42536" lon="0.0165">
        <ele>1001.8</ele>
        <time>2016-07-31T08:17:02Z</time>
      </trkpt>
      <trkpt lat="42.42536" lon="0.01645">
        <ele>1001.9</ele>
        <time>2016-07-31T08:17:03Z</time>
      </trkpt>
      <trkpt lat="42.42536" lon="0.01641">
        <ele>1001.9</ele>
        <time>2016-07-31T08:17:04Z</time>
      </trkpt>
      <trkpt lat="42.42536" lon="0.01636">
        <ele>1001.9</ele>
        <time>2016-07-31T08:17:05Z</time>
      </trkpt>
      <trkpt lat="42.42536" lon="0.01632">
        <ele>1002</ele>
        <time>2016-07-31T08:17:06Z</time>
      </trkpt>
      <trkpt lat="42.42536" lon="0.01627">
        <ele>1002</ele>
        <time>2016-07-31T08:17:07Z</time>
      </trkpt>
      <trkpt lat="42.42536" lon="0.01623">
        <ele>1001.9</ele>
        <time>2016-07-31T08:17:08Z</time>
      </trkpt>
      <trkpt lat="42.42536" lon="0.01618">
        <ele>1001.6</ele>
        <time>2016-07-31T08:17:09Z</time>
      </trkpt>
      <trkpt lat="42.42536" lon="0.01614">
        <ele>1001.3</ele>
        <time>2016-07-31T08:17:10Z</time>
      </trkpt>
      <trkpt lat="42.42536" lon="0.01609">
        <ele>1001</ele>
        <time>2016-07-31T08:17:11Z</time>
      </trkpt>
      <trkpt lat="42.42536" lon="0.01605">
        <ele>1000.6</ele>
        <time>2016-07-31T08:17:12Z</time>
      </trkpt>
      <trkpt lat="42.42537" lon="0.016">
        <ele>1000.3</ele>
        <time>2016-07-31T08:17:13Z</time>
      </trkpt>
      <trkpt lat="42.42537" lon="0.01596">
        <ele>999.9</ele>
        <time>2016-07-31T08:17:14Z</time>
      </trkpt>
      <trkpt lat="42.42537" lon="0.01592">
        <ele>999.5</ele>
        <time>2016-07-31T08:17:15Z</time>
      </trkpt>
      <trkpt lat="42.42537" lon="0.01587">
        <ele>999.1</ele>
        <time>2016-07-31T08:17:16Z</time>
      </trkpt>
      <trkpt lat="42.42538" lon="0.01583">
        <ele>998.7</ele>
        <time>2016-07-31T08:17:17Z</time>
      </trkpt>
      <trkpt lat="42.42538" lon="0.01579">
        <ele>998.4</ele>
        <time>2016-07-31T08:17:18Z</time>
      </trkpt>
      <trkpt lat="42.42538" lon="0.01575">
        <ele>998.2</ele>
        <time>2016-07-31T08:17:19Z</time>
      </trkpt>
      <trkpt lat="42.42538" lon="0.0157">
        <ele>997.8</ele>
        <time>2016-07-31T08:17:20Z</time>
      </trkpt>
      <trkpt lat="42.42538" lon="0.01566">
        <ele>997.5</ele>
        <time>2016-07-31T08:17:21Z</time>
      </trkpt>
      <trkpt lat="42.42538" lon="0.01561">
        <ele>997.1</ele>
        <time>2016-07-31T08:17:22Z</time>
      </trkpt>
      <trkpt lat="42.42538" lon="0.01557">
        <ele>996.8</ele>
        <time>2016-07-31T08:17:23Z</time>
      </trkpt>
      <trkpt lat="42.42538" lon="0.01552">
        <ele>996.5</ele>
        <time>2016-07-31T08:17:24Z</time>
      </trkpt>
      <trkpt lat="42.42538" lon="0.01547">
        <ele>996.2</ele>
        <time>2016-07-31T08:17:25Z</time>
      </trkpt>
      <trkpt lat="42.42538" lon="0.01543">
        <ele>995.9</ele>
        <time>2016-07-31T08:17:26Z</time>
      </trkpt>
      <trkpt lat="42.42538" lon="0.01539">
        <ele>996</ele>
        <time>2016-07-31T08:17:27Z</time>
      </trkpt>
      <trkpt lat="42.42538" lon="0.01534">
        <ele>996.3</ele>
        <time>2016-07-31T08:17:28Z</time>
      </trkpt>
      <trkpt lat="42.42538" lon="0.0153">
        <ele>996.6</ele>
        <time>2016-07-31T08:17:29Z</time>
      </trkpt>
      <trkpt lat="42.42537" lon="0.01526">
        <ele>997</ele>
        <time>2016-07-31T08:17:30Z</time>
      </trkpt>
      <trkpt lat="42.42536" lon="0.01522">
        <ele>997.4</ele>
        <time>2016-07-31T08:17:31Z</time>
      </trkpt>
      <trkpt lat="42.42535" lon="0.01518">
        <ele>997.9</ele>
        <time>2016-07-31T08:17:32Z</time>
      </trkpt>
      <trkpt lat="42.42533" lon="0.01514">
        <ele>998.4</ele>
        <time>2016-07-31T08:17:33Z</time>
      </trkpt>
      <trkpt lat="42.42532" lon="0.01511">
        <ele>998.8</ele>
        <time>2016-07-31T08:17:34Z</time>
      </trkpt>
      <trkpt lat="42.4253" lon="0.01507">
        <ele>999.3</ele>
        <time>2016-07-31T08:17:35Z</time>
      </trkpt>
      <trkpt lat="42.42528" lon="0.01503">
        <ele>999.8</ele>
        <time>2016-07-31T08:17:36Z</time>
      </trkpt>
      <trkpt lat="42.42526" lon="0.01499">
        <ele>1000.2</ele>
        <time>2016-07-31T08:17:37Z</time>
      </trkpt>
      <trkpt lat="42.42525" lon="0.01495">
        <ele>1000.6</ele>
        <time>2016-07-31T08:17:38Z</time>
      </trkpt>
      <trkpt lat="42.42523" lon="0.01491">
        <ele>1001</ele>
        <time>2016-07-31T08:17:39Z</time>
      </trkpt>
      <trkpt lat="42.42521" lon="0.01487">
        <ele>1001.3</ele>
        <time>2016-07-31T08:17:40Z</time>
      </trkpt>
      <trkpt lat="42.42519" lon="0.01484">
        <ele>1001.7</ele>
        <time>2016-07-31T08:17:41Z</time>
      </trkpt>
      <trkpt lat="42.42518" lon="0.01481">
        <ele>1002</ele>
        <time>2016-07-31T08:17:42Z</time>
      </trkpt>
      <trkpt lat="42.42516" lon="0.01478">
        <ele>1002.3</ele>
        <time>2016-07-31T08:17:43Z</time>
      </trkpt>
      <trkpt lat="42.42514" lon="0.01474">
        <ele>1002.5</ele>
        <time>2016-07-31T08:17:44Z</time>
      </trkpt>
      <trkpt lat="42.42512" lon="0.0147">
        <ele>1002.8</ele>
        <time>2016-07-31T08:17:45Z</time>
      </trkpt>
      <trkpt lat="42.42511" lon="0.01467">
        <ele>1003</ele>
        <time>2016-07-31T08:17:46Z</time>
      </trkpt>
      <trkpt lat="42.42509" lon="0.01463">
        <ele>1003.2</ele>
        <time>2016-07-31T08:17:47Z</time>
      </trkpt>
      <trkpt lat="42.42507" lon="0.01459">
        <ele>1003.3</ele>
        <time>2016-07-31T08:17:48Z</time>
      </trkpt>
      <trkpt lat="42.42505" lon="0.01456">
        <ele>1003.7</ele>
        <time>2016-07-31T08:17:49Z</time>
      </trkpt>
      <trkpt lat="42.42503" lon="0.01453">
        <ele>1004.2</ele>
        <time>2016-07-31T08:17:50Z</time>
      </trkpt>
      <trkpt lat="42.42501" lon="0.0145">
        <ele>1004.6</ele>
        <time>2016-07-31T08:17:51Z</time>
      </trkpt>
      <trkpt lat="42.42499" lon="0.01447">
        <ele>1005.1</ele>
        <time>2016-07-31T08:17:52Z</time>
      </trkpt>
      <trkpt lat="42.42497" lon="0.01443">
        <ele>1005.5</ele>
        <time>2016-07-31T08:17:53Z</time>
      </trkpt>
      <trkpt lat="42.42496" lon="0.0144">
        <ele>1005.9</ele>
        <time>2016-07-31T08:17:54Z</time>
      </trkpt>
      <trkpt lat="42.42494" lon="0.01437">
        <ele>1006.4</ele>
        <time>2016-07-31T08:17:55Z</time>
      </trkpt>
      <trkpt lat="42.42493" lon="0.01433">
        <ele>1006.8</ele>
        <time>2016-07-31T08:17:56Z</time>
      </trkpt>
      <trkpt lat="42.42492" lon="0.01429">
        <ele>1007.2</ele>
        <time>2016-07-31T08:17:57Z</time>
      </trkpt>
      <trkpt lat="42.42491" lon="0.01426">
        <ele>1007.6</ele>
        <time>2016-07-31T08:17:58Z</time>
      </trkpt>
      <trkpt lat="42.4249" lon="0.01421">
        <ele>1008.1</ele>
        <time>2016-07-31T08:17:59Z</time>
      </trkpt>
      <trkpt lat="42.42489" lon="0.01417">
        <ele>1008.5</ele>
        <time>2016-07-31T08:18:00Z</time>
      </trkpt>
      <trkpt lat="42.42488" lon="0.01413">
        <ele>1008.9</ele>
        <time>2016-07-31T08:18:01Z</time>
      </trkpt>
      <trkpt lat="42.42488" lon="0.01409">
        <ele>1009.3</ele>
        <time>2016-07-31T08:18:02Z</time>
      </trkpt>
      <trkpt lat="42.42488" lon="0.01404">
        <ele>1009.7</ele>
        <time>2016-07-31T08:18:03Z</time>
      </trkpt>
      <trkpt lat="42.42488" lon="0.01399">
        <ele>1010.1</ele>
        <time>2016-07-31T08:18:04Z</time>
      </trkpt>
      <trkpt lat="42.42488" lon="0.01395">
        <ele>1010.5</ele>
        <time>2016-07-31T08:18:05Z</time>
      </trkpt>
      <trkpt lat="42.42488" lon="0.0139">
        <ele>1010.9</ele>
        <time>2016-07-31T08:18:06Z</time>
      </trkpt>
      <trkpt lat="42.42489" lon="0.01385">
        <ele>1011.2</ele>
        <time>2016-07-31T08:18:07Z</time>
      </trkpt>
      <trkpt lat="42.42489" lon="0.01381">
        <ele>1011.6</ele>
        <time>2016-07-31T08:18:08Z</time>
      </trkpt>
      <trkpt lat="42.4249" lon="0.01376">
        <ele>1011.9</ele>
        <time>2016-07-31T08:18:09Z</time>
      </trkpt>
      <trkpt lat="42.42491" lon="0.01372">
        <ele>1011.9</ele>
        <time>2016-07-31T08:18:10Z</time>
      </trkpt>
      <trkpt lat="42.42491" lon="0.01368">
        <ele>1012</ele>
        <time>2016-07-31T08:18:11Z</time>
      </trkpt>
      <trkpt lat="42.42491" lon="0.01363">
        <ele>1012</ele>
        <time>2016-07-31T08:18:12Z</time>
      </trkpt>
      <trkpt lat="42.42491" lon="0.01358">
        <ele>1012</ele>
        <time>2016-07-31T08:18:13Z</time>
      </trkpt>
      <trkpt lat="42.42491" lon="0.01353">
        <ele>1012.1</ele>
        <time>2016-07-31T08:18:14Z</time>
      </trkpt>
      <trkpt lat="42.42491" lon="0.01349">
        <ele>1012.1</ele>
        <time>2016-07-31T08:18:15Z</time>
      </trkpt>
      <trkpt lat="42.42491" lon="0.01344">
        <ele>1012.2</ele>
        <time>2016-07-31T08:18:16Z</time>
      </trkpt>
      <trkpt lat="42.42491" lon="0.0134">
        <ele>1012.3</ele>
        <time>2016-07-31T08:18:17Z</time>
      </trkpt>
      <trkpt lat="42.42491" lon="0.01336">
        <ele>1012.3</ele>
        <time>2016-07-31T08:18:18Z</time>
      </trkpt>
      <trkpt lat="42.42491" lon="0.01331">
        <ele>1012.3</ele>
        <time>2016-07-31T08:18:19Z</time>
      </trkpt>
      <trkpt lat="42.42491" lon="0.01327">
        <ele>1012.4</ele>
        <time>2016-07-31T08:18:20Z</time>
      </trkpt>
      <trkpt lat="42.42491" lon="0.01323">
        <ele>1012.4</ele>
        <time>2016-07-31T08:18:21Z</time>
      </trkpt>
      <trkpt lat="42.42491" lon="0.0132">
        <ele>1012.5</ele>
        <time>2016-07-31T08:18:22Z</time>
      </trkpt>
      <trkpt lat="42.42491" lon="0.01316">
        <ele>1012.5</ele>
        <time>2016-07-31T08:18:23Z</time>
      </trkpt>
      <trkpt lat="42.42491" lon="0.01312">
        <ele>1012.6</ele>
        <time>2016-07-31T08:18:24Z</time>
      </trkpt>
      <trkpt lat="42.42491" lon="0.01308">
        <ele>1012.6</ele>
        <time>2016-07-31T08:18:25Z</time>
      </trkpt>
      <trkpt lat="42.42491" lon="0.01304">
        <ele>1012.7</ele>
        <time>2016-07-31T08:18:26Z</time>
      </trkpt>
      <trkpt lat="42.4249" lon="0.013">
        <ele>1012.8</ele>
        <time>2016-07-31T08:18:27Z</time>
      </trkpt>
      <trkpt lat="42.42489" lon="0.01297">
        <ele>1012.8</ele>
        <time>2016-07-31T08:18:28Z</time>
      </trkpt>
      <trkpt lat="42.42488" lon="0.01293">
        <ele>1012.9</ele>
        <time>2016-07-31T08:18:29Z</time>
      </trkpt>
      <trkpt lat="42.42487" lon="0.0129">
        <ele>1013.1</ele>
        <time>2016-07-31T08:18:30Z</time>
      </trkpt>
      <trkpt lat="42.42485" lon="0.01286">
        <ele>1013.2</ele>
        <time>2016-07-31T08:18:31Z</time>
      </trkpt>
      <trkpt lat="42.42484" lon="0.01283">
        <ele>1013.4</ele>
        <time>2016-07-31T08:18:32Z</time>
      </trkpt>
      <trkpt lat="42.42482" lon="0.0128">
        <ele>1013.5</ele>
        <time>2016-07-31T08:18:33Z</time>
      </trkpt>
      <trkpt lat="42.4248" lon="0.01277">
        <ele>1013.7</ele>
        <time>2016-07-31T08:18:34Z</time>
      </trkpt>
      <trkpt lat="42.42478" lon="0.01275">
        <ele>1013.8</ele>
        <time>2016-07-31T08:18:35Z</time>
      </trkpt>
      <trkpt lat="42.42476" lon="0.01272">
        <ele>1013.9</ele>
        <time>2016-07-31T08:18:36Z</time>
      </trkpt>
      <trkpt lat="42.42473" lon="0.0127">
        <ele>1013.9</ele>
        <time>2016-07-31T08:18:37Z</time>
      </trkpt>
      <trkpt lat="42.4247" lon="0.01268">
        <ele>1014</ele>
        <time>2016-07-31T08:18:38Z</time>
      </trkpt>
      <trkpt lat="42.42467" lon="0.01266">
        <ele>1014</ele>
        <time>2016-07-31T08:18:39Z</time>
      </trkpt>
      <trkpt lat="42.42464" lon="0.01264">
        <ele>1014</ele>
        <time>2016-07-31T08:18:40Z</time>
      </trkpt>
      <trkpt lat="42.4246" lon="0.01263">
        <ele>1014</ele>
        <time>2016-07-31T08:18:41Z</time>
      </trkpt>
      <trkpt lat="42.42457" lon="0.01263">
        <ele>1014.3</ele>
        <time>2016-07-31T08:18:42Z</time>
      </trkpt>
      <trkpt lat="42.42454" lon="0.01263">
        <ele>1015.1</ele>
        <time>2016-07-31T08:18:43Z</time>
      </trkpt>
      <trkpt lat="42.42451" lon="0.01264">
        <ele>1016</ele>
        <time>2016-07-31T08:18:44Z</time>
      </trkpt>
      <trkpt lat="42.42448" lon="0.01265">
        <ele>1016.7</ele>
        <time>2016-07-31T08:18:45Z</time>
      </trkpt>
      <trkpt lat="42.42445" lon="0.01267">
        <ele>1017.5</ele>
        <time>2016-07-31T08:18:46Z</time>
      </trkpt>
      <trkpt lat="42.42442" lon="0.0127">
        <ele>1018.3</ele>
        <time>2016-07-31T08:18:47Z</time>
      </trkpt>
      <trkpt lat="42.42439" lon="0.01272">
        <ele>1019</ele>
        <time>2016-07-31T08:18:48Z</time>
      </trkpt>
      <trkpt lat="42.42437" lon="0.01275">
        <ele>1019.7</ele>
        <time>2016-07-31T08:18:49Z</time>
      </trkpt>
      <trkpt lat="42.42434" lon="0.01279">
        <ele>1020.4</ele>
        <time>2016-07-31T08:18:50Z</time>
      </trkpt>
      <trkpt lat="42.42432" lon="0.01282">
        <ele>1021</ele>
        <time>2016-07-31T08:18:51Z</time>
      </trkpt>
      <trkpt lat="42.42431" lon="0.01286">
        <ele>1021.5</ele>
        <time>2016-07-31T08:18:52Z</time>
      </trkpt>
      <trkpt lat="42.42429" lon="0.0129">
        <ele>1022</ele>
        <time>2016-07-31T08:18:53Z</time>
      </trkpt>
      <trkpt lat="42.42428" lon="0.01294">
        <ele>1022.2</ele>
        <time>2016-07-31T08:18:54Z</time>
      </trkpt>
      <trkpt lat="42.42428" lon="0.01297">
        <ele>1022.3</ele>
        <time>2016-07-31T08:18:55Z</time>
      </trkpt>
      <trkpt lat="42.42427" lon="0.01301">
        <ele>1022.4</ele>
        <time>2016-07-31T08:18:56Z</time>
      </trkpt>
      <trkpt lat="42.42426" lon="0.01304">
        <ele>1022.4</ele>
        <time>2016-07-31T08:18:57Z</time>
      </trkpt>
      <trkpt lat="42.42426" lon="0.01308">
        <ele>1022.4</ele>
        <time>2016-07-31T08:18:58Z</time>
      </trkpt>
      <trkpt lat="42.42426" lon="0.01312">
        <ele>1022.2</ele>
        <time>2016-07-31T08:18:59Z</time>
      </trkpt>
      <trkpt lat="42.42426" lon="0.01316">
        <ele>1022.1</ele>
        <time>2016-07-31T08:19:00Z</time>
      </trkpt>
      <trkpt lat="42.42426" lon="0.0132">
        <ele>1021.9</ele>
        <time>2016-07-31T08:19:01Z</time>
      </trkpt>
      <trkpt lat="42.42426" lon="0.01324">
        <ele>1021.8</ele>
        <time>2016-07-31T08:19:02Z</time>
      </trkpt>
      <trkpt lat="42.42426" lon="0.01331">
        <ele>1021.5</ele>
        <time>2016-07-31T08:19:04Z</time>
      </trkpt>
      <trkpt lat="42.42426" lon="0.01335">
        <ele>1021.4</ele>
        <time>2016-07-31T08:19:05Z</time>
      </trkpt>
      <trkpt lat="42.42426" lon="0.01342">
        <ele>1021.3</ele>
        <time>2016-07-31T08:19:07Z</time>
      </trkpt>
      <trkpt lat="42.42424" lon="0.01349">
        <ele>1021.3</ele>
        <time>2016-07-31T08:19:09Z</time>
      </trkpt>
      <trkpt lat="42.42423" lon="0.01352">
        <ele>1021.4</ele>
        <time>2016-07-31T08:19:10Z</time>
      </trkpt>
      <trkpt lat="42.42421" lon="0.01355">
        <ele>1021.6</ele>
        <time>2016-07-31T08:19:11Z</time>
      </trkpt>
      <trkpt lat="42.42419" lon="0.01358">
        <ele>1021.8</ele>
        <time>2016-07-31T08:19:12Z</time>
      </trkpt>
      <trkpt lat="42.42417" lon="0.01361">
        <ele>1022</ele>
        <time>2016-07-31T08:19:13Z</time>
      </trkpt>
      <trkpt lat="42.42415" lon="0.01364">
        <ele>1022.3</ele>
        <time>2016-07-31T08:19:14Z</time>
      </trkpt>
      <trkpt lat="42.42413" lon="0.01366">
        <ele>1022.5</ele>
        <time>2016-07-31T08:19:15Z</time>
      </trkpt>
      <trkpt lat="42.42411" lon="0.01368">
        <ele>1022.8</ele>
        <time>2016-07-31T08:19:16Z</time>
      </trkpt>
      <trkpt lat="42.42408" lon="0.0137">
        <ele>1023.1</ele>
        <time>2016-07-31T08:19:17Z</time>
      </trkpt>
      <trkpt lat="42.42406" lon="0.01371">
        <ele>1023.5</ele>
        <time>2016-07-31T08:19:18Z</time>
      </trkpt>
      <trkpt lat="42.42403" lon="0.01372">
        <ele>1023.9</ele>
        <time>2016-07-31T08:19:19Z</time>
      </trkpt>
      <trkpt lat="42.424" lon="0.01374">
        <ele>1024.2</ele>
        <time>2016-07-31T08:19:20Z</time>
      </trkpt>
      <trkpt lat="42.42397" lon="0.01375">
        <ele>1024.6</ele>
        <time>2016-07-31T08:19:21Z</time>
      </trkpt>
      <trkpt lat="42.42394" lon="0.01376">
        <ele>1024.9</ele>
        <time>2016-07-31T08:19:22Z</time>
      </trkpt>
      <trkpt lat="42.42391" lon="0.01377">
        <ele>1025.3</ele>
        <time>2016-07-31T08:19:23Z</time>
      </trkpt>
      <trkpt lat="42.42388" lon="0.01378">
        <ele>1025.6</ele>
        <time>2016-07-31T08:19:24Z</time>
      </trkpt>
      <trkpt lat="42.42385" lon="0.01379">
        <ele>1025.9</ele>
        <time>2016-07-31T08:19:25Z</time>
      </trkpt>
      <trkpt lat="42.42382" lon="0.0138">
        <ele>1026.2</ele>
        <time>2016-07-31T08:19:26Z</time>
      </trkpt>
      <trkpt lat="42.42379" lon="0.01381">
        <ele>1026.6</ele>
        <time>2016-07-31T08:19:27Z</time>
      </trkpt>
      <trkpt lat="42.42376" lon="0.01381">
        <ele>1027</ele>
        <time>2016-07-31T08:19:28Z</time>
      </trkpt>
      <trkpt lat="42.42374" lon="0.01381">
        <ele>1027.3</ele>
        <time>2016-07-31T08:19:29Z</time>
      </trkpt>
      <trkpt lat="42.42368" lon="0.01379">
        <ele>1028.1</ele>
        <time>2016-07-31T08:19:31Z</time>
      </trkpt>
      <trkpt lat="42.42364" lon="0.01377">
        <ele>1028.8</ele>
        <time>2016-07-31T08:19:33Z</time>
      </trkpt>
      <trkpt lat="42.42359" lon="0.01374">
        <ele>1029.6</ele>
        <time>2016-07-31T08:19:35Z</time>
      </trkpt>
      <trkpt lat="42.42355" lon="0.01371">
        <ele>1030.3</ele>
        <time>2016-07-31T08:19:37Z</time>
      </trkpt>
      <trkpt lat="42.4235" lon="0.01368">
        <ele>1031.1</ele>
        <time>2016-07-31T08:19:39Z</time>
      </trkpt>
      <trkpt lat="42.42345" lon="0.01366">
        <ele>1031.7</ele>
        <time>2016-07-31T08:19:41Z</time>
      </trkpt>
      <trkpt lat="42.42341" lon="0.01365">
        <ele>1032.3</ele>
        <time>2016-07-31T08:19:43Z</time>
      </trkpt>
      <trkpt lat="42.42336" lon="0.01362">
        <ele>1032.9</ele>
        <time>2016-07-31T08:19:45Z</time>
      </trkpt>
      <trkpt lat="42.42333" lon="0.01359">
        <ele>1033.5</ele>
        <time>2016-07-31T08:19:47Z</time>
      </trkpt>
      <trkpt lat="42.42328" lon="0.01356">
        <ele>1034.1</ele>
        <time>2016-07-31T08:19:49Z</time>
      </trkpt>
      <trkpt lat="42.42324" lon="0.01353">
        <ele>1034.8</ele>
        <time>2016-07-31T08:19:51Z</time>
      </trkpt>
      <trkpt lat="42.4232" lon="0.01351">
        <ele>1035.3</ele>
        <time>2016-07-31T08:19:53Z</time>
      </trkpt>
      <trkpt lat="42.42315" lon="0.0135">
        <ele>1035.8</ele>
        <time>2016-07-31T08:19:55Z</time>
      </trkpt>
      <trkpt lat="42.4231" lon="0.01349">
        <ele>1036.3</ele>
        <time>2016-07-31T08:19:57Z</time>
      </trkpt>
      <trkpt lat="42.42306" lon="0.01349">
        <ele>1036.7</ele>
        <time>2016-07-31T08:19:59Z</time>
      </trkpt>
      <trkpt lat="42.42301" lon="0.01351">
        <ele>1036.9</ele>
        <time>2016-07-31T08:20:01Z</time>
      </trkpt>
      <trkpt lat="42.42296" lon="0.01353">
        <ele>1037.2</ele>
        <time>2016-07-31T08:20:03Z</time>
      </trkpt>
      <trkpt lat="42.42292" lon="0.01355">
        <ele>1037.5</ele>
        <time>2016-07-31T08:20:05Z</time>
      </trkpt>
      <trkpt lat="42.42287" lon="0.01357">
        <ele>1037.3</ele>
        <time>2016-07-31T08:20:07Z</time>
      </trkpt>
      <trkpt lat="42.42283" lon="0.01359">
        <ele>1037.2</ele>
        <time>2016-07-31T08:20:09Z</time>
      </trkpt>
      <trkpt lat="42.42278" lon="0.01362">
        <ele>1037</ele>
        <time>2016-07-31T08:20:11Z</time>
      </trkpt>
      <trkpt lat="42.42273" lon="0.01364">
        <ele>1036.9</ele>
        <time>2016-07-31T08:20:13Z</time>
      </trkpt>
      <trkpt lat="42.42268" lon="0.01366">
        <ele>1036.7</ele>
        <time>2016-07-31T08:20:15Z</time>
      </trkpt>
      <trkpt lat="42.42263" lon="0.01368">
        <ele>1036.6</ele>
        <time>2016-07-31T08:20:17Z</time>
      </trkpt>
      <trkpt lat="42.4226" lon="0.01368">
        <ele>1036.5</ele>
        <time>2016-07-31T08:20:18Z</time>
      </trkpt>
      <trkpt lat="42.42255" lon="0.01369">
        <ele>1036.4</ele>
        <time>2016-07-31T08:20:20Z</time>
      </trkpt>
      <trkpt lat="42.42251" lon="0.01371">
        <ele>1036.4</ele>
        <time>2016-07-31T08:20:22Z</time>
      </trkpt>
      <trkpt lat="42.42245" lon="0.01371">
        <ele>1036.3</ele>
        <time>2016-07-31T08:20:24Z</time>
      </trkpt>
      <trkpt lat="42.4224" lon="0.01372">
        <ele>1036.2</ele>
        <time>2016-07-31T08:20:26Z</time>
      </trkpt>
      <trkpt lat="42.42237" lon="0.01372">
        <ele>1036.2</ele>
        <time>2016-07-31T08:20:27Z</time>
      </trkpt>
      <trkpt lat="42.42232" lon="0.01373">
        <ele>1036.1</ele>
        <time>2016-07-31T08:20:29Z</time>
      </trkpt>
      <trkpt lat="42.42227" lon="0.01374">
        <ele>1036.1</ele>
        <time>2016-07-31T08:20:31Z</time>
      </trkpt>
      <trkpt lat="42.42222" lon="0.01374">
        <ele>1036.1</ele>
        <time>2016-07-31T08:20:33Z</time>
      </trkpt>
      <trkpt lat="42.42216" lon="0.01373">
        <ele>1036.1</ele>
        <time>2016-07-31T08:20:35Z</time>
      </trkpt>
      <trkpt lat="42.42214" lon="0.01373">
        <ele>1036.1</ele>
        <time>2016-07-31T08:20:36Z</time>
      </trkpt>
      <trkpt lat="42.42209" lon="0.01373">
        <ele>1036.2</ele>
        <time>2016-07-31T08:20:38Z</time>
      </trkpt>
      <trkpt lat="42.42204" lon="0.01372">
        <ele>1036.6</ele>
        <time>2016-07-31T08:20:40Z</time>
      </trkpt>
      <trkpt lat="42.422" lon="0.0137">
        <ele>1036.9</ele>
        <time>2016-07-31T08:20:42Z</time>
      </trkpt>
      <trkpt lat="42.42196" lon="0.01368">
        <ele>1037.3</ele>
        <time>2016-07-31T08:20:44Z</time>
      </trkpt>
      <trkpt lat="42.42191" lon="0.01367">
        <ele>1037.7</ele>
        <time>2016-07-31T08:20:46Z</time>
      </trkpt>
      <trkpt lat="42.42187" lon="0.01366">
        <ele>1038</ele>
        <time>2016-07-31T08:20:48Z</time>
      </trkpt>
      <trkpt lat="42.42182" lon="0.01367">
        <ele>1038.3</ele>
        <time>2016-07-31T08:20:50Z</time>
      </trkpt>
      <trkpt lat="42.42177" lon="0.01367">
        <ele>1038.6</ele>
        <time>2016-07-31T08:20:52Z</time>
      </trkpt>
      <trkpt lat="42.42173" lon="0.01367">
        <ele>1038.8</ele>
        <time>2016-07-31T08:20:54Z</time>
      </trkpt>
      <trkpt lat="42.42168" lon="0.01368">
        <ele>1039</ele>
        <time>2016-07-31T08:20:56Z</time>
      </trkpt>
      <trkpt lat="42.42164" lon="0.01368">
        <ele>1039.3</ele>
        <time>2016-07-31T08:20:58Z</time>
      </trkpt>
      <trkpt lat="42.42159" lon="0.01369">
        <ele>1039.4</ele>
        <time>2016-07-31T08:21:00Z</time>
      </trkpt>
      <trkpt lat="42.42155" lon="0.01371">
        <ele>1039.5</ele>
        <time>2016-07-31T08:21:02Z</time>
      </trkpt>
      <trkpt lat="42.42151" lon="0.01373">
        <ele>1039.7</ele>
        <time>2016-07-31T08:21:04Z</time>
      </trkpt>
      <trkpt lat="42.42146" lon="0.01375">
        <ele>1039.8</ele>
        <time>2016-07-31T08:21:06Z</time>
      </trkpt>
      <trkpt lat="42.42142" lon="0.01377">
        <ele>1040</ele>
        <time>2016-07-31T08:21:08Z</time>
      </trkpt>
      <trkpt lat="42.42137" lon="0.01379">
        <ele>1040.3</ele>
        <time>2016-07-31T08:21:10Z</time>
      </trkpt>
      <trkpt lat="42.42132" lon="0.01382">
        <ele>1040.6</ele>
        <time>2016-07-31T08:21:12Z</time>
      </trkpt>
      <trkpt lat="42.42127" lon="0.01384">
        <ele>1040.9</ele>
        <time>2016-07-31T08:21:14Z</time>
      </trkpt>
      <trkpt lat="42.42123" lon="0.01386">
        <ele>1041.1</ele>
        <time>2016-07-31T08:21:16Z</time>
      </trkpt>
      <trkpt lat="42.42119" lon="0.01388">
        <ele>1041.3</ele>
        <time>2016-07-31T08:21:18Z</time>
      </trkpt>
      <trkpt lat="42.42114" lon="0.0139">
        <ele>1041.6</ele>
        <time>2016-07-31T08:21:20Z</time>
      </trkpt>
      <trkpt lat="42.42109" lon="0.01392">
        <ele>1041.8</ele>
        <time>2016-07-31T08:21:22Z</time>
      </trkpt>
      <trkpt lat="42.42106" lon="0.01393">
        <ele>1042</ele>
        <time>2016-07-31T08:21:23Z</time>
      </trkpt>
      <trkpt lat="42.42104" lon="0.01395">
        <ele>1042.1</ele>
        <time>2016-07-31T08:21:24Z</time>
      </trkpt>
      <trkpt lat="42.42099" lon="0.01397">
        <ele>1042.3</ele>
        <time>2016-07-31T08:21:26Z</time>
      </trkpt>
      <trkpt lat="42.42094" lon="0.01399">
        <ele>1042.6</ele>
        <time>2016-07-31T08:21:28Z</time>
      </trkpt>
      <trkpt lat="42.4209" lon="0.01401">
        <ele>1042.8</ele>
        <time>2016-07-31T08:21:30Z</time>
      </trkpt>
      <trkpt lat="42.42085" lon="0.01401">
        <ele>1043.1</ele>
        <time>2016-07-31T08:21:32Z</time>
      </trkpt>
      <trkpt lat="42.4208" lon="0.014">
        <ele>1043.3</ele>
        <time>2016-07-31T08:21:34Z</time>
      </trkpt>
      <trkpt lat="42.42076" lon="0.014">
        <ele>1043.5</ele>
        <time>2016-07-31T08:21:36Z</time>
      </trkpt>
      <trkpt lat="42.42072" lon="0.01398">
        <ele>1043.7</ele>
        <time>2016-07-31T08:21:38Z</time>
      </trkpt>
      <trkpt lat="42.42067" lon="0.01395">
        <ele>1043.9</ele>
        <time>2016-07-31T08:21:40Z</time>
      </trkpt>
      <trkpt lat="42.42063" lon="0.01392">
        <ele>1044.1</ele>
        <time>2016-07-31T08:21:42Z</time>
      </trkpt>
      <trkpt lat="42.42059" lon="0.01389">
        <ele>1044.3</ele>
        <time>2016-07-31T08:21:44Z</time>
      </trkpt>
      <trkpt lat="42.42056" lon="0.01386">
        <ele>1044.4</ele>
        <time>2016-07-31T08:21:45Z</time>
      </trkpt>
      <trkpt lat="42.42054" lon="0.01385">
        <ele>1044.5</ele>
        <time>2016-07-31T08:21:46Z</time>
      </trkpt>
      <trkpt lat="42.42049" lon="0.01381">
        <ele>1044.7</ele>
        <time>2016-07-31T08:21:48Z</time>
      </trkpt>
      <trkpt lat="42.42045" lon="0.01377">
        <ele>1044.9</ele>
        <time>2016-07-31T08:21:50Z</time>
      </trkpt>
      <trkpt lat="42.42041" lon="0.01373">
        <ele>1044.8</ele>
        <time>2016-07-31T08:21:52Z</time>
      </trkpt>
      <trkpt lat="42.42037" lon="0.0137">
        <ele>1044.3</ele>
        <time>2016-07-31T08:21:54Z</time>
      </trkpt>
      <trkpt lat="42.42033" lon="0.01365">
        <ele>1043.7</ele>
        <time>2016-07-31T08:21:56Z</time>
      </trkpt>
      <trkpt lat="42.42029" lon="0.01362">
        <ele>1043</ele>
        <time>2016-07-31T08:21:58Z</time>
      </trkpt>
      <trkpt lat="42.42025" lon="0.01358">
        <ele>1042.3</ele>
        <time>2016-07-31T08:22:00Z</time>
      </trkpt>
      <trkpt lat="42.42021" lon="0.01355">
        <ele>1041.5</ele>
        <time>2016-07-31T08:22:02Z</time>
      </trkpt>
      <trkpt lat="42.42017" lon="0.01355">
        <ele>1040.6</ele>
        <time>2016-07-31T08:22:04Z</time>
      </trkpt>
      <trkpt lat="42.42014" lon="0.01358">
        <ele>1039.8</ele>
        <time>2016-07-31T08:22:06Z</time>
      </trkpt>
      <trkpt lat="42.42011" lon="0.01362">
        <ele>1039.2</ele>
        <time>2016-07-31T08:22:08Z</time>
      </trkpt>
      <trkpt lat="42.42009" lon="0.01367">
        <ele>1038.6</ele>
        <time>2016-07-31T08:22:10Z</time>
      </trkpt>
      <trkpt lat="42.42007" lon="0.01373">
        <ele>1037.9</ele>
        <time>2016-07-31T08:22:12Z</time>
      </trkpt>
      <trkpt lat="42.42005" lon="0.01376">
        <ele>1037.7</ele>
        <time>2016-07-31T08:22:13Z</time>
      </trkpt>
      <trkpt lat="42.42004" lon="0.0138">
        <ele>1037.6</ele>
        <time>2016-07-31T08:22:14Z</time>
      </trkpt>
      <trkpt lat="42.42001" lon="0.01386">
        <ele>1037.5</ele>
        <time>2016-07-31T08:22:16Z</time>
      </trkpt>
      <trkpt lat="42.42" lon="0.01389">
        <ele>1037.4</ele>
        <time>2016-07-31T08:22:17Z</time>
      </trkpt>
      <trkpt lat="42.41998" lon="0.01392">
        <ele>1037.4</ele>
        <time>2016-07-31T08:22:18Z</time>
      </trkpt>
      <trkpt lat="42.41997" lon="0.01396">
        <ele>1037.4</ele>
        <time>2016-07-31T08:22:19Z</time>
      </trkpt>
      <trkpt lat="42.41996" lon="0.014">
        <ele>1037.5</ele>
        <time>2016-07-31T08:22:20Z</time>
      </trkpt>
      <trkpt lat="42.41995" lon="0.01403">
        <ele>1037.7</ele>
        <time>2016-07-31T08:22:21Z</time>
      </trkpt>
      <trkpt lat="42.41994" lon="0.01407">
        <ele>1037.8</ele>
        <time>2016-07-31T08:22:22Z</time>
      </trkpt>
      <trkpt lat="42.41993" lon="0.01411">
        <ele>1038</ele>
        <time>2016-07-31T08:22:23Z</time>
      </trkpt>
      <trkpt lat="42.41992" lon="0.01415">
        <ele>1038.2</ele>
        <time>2016-07-31T08:22:24Z</time>
      </trkpt>
      <trkpt lat="42.41992" lon="0.01419">
        <ele>1038.4</ele>
        <time>2016-07-31T08:22:25Z</time>
      </trkpt>
      <trkpt lat="42.41991" lon="0.01423">
        <ele>1038.7</ele>
        <time>2016-07-31T08:22:26Z</time>
      </trkpt>
      <trkpt lat="42.4199" lon="0.01427">
        <ele>1039</ele>
        <time>2016-07-31T08:22:27Z</time>
      </trkpt>
      <trkpt lat="42.4199" lon="0.01432">
        <ele>1039.3</ele>
        <time>2016-07-31T08:22:28Z</time>
      </trkpt>
      <trkpt lat="42.41989" lon="0.01436">
        <ele>1039.6</ele>
        <time>2016-07-31T08:22:29Z</time>
      </trkpt>
      <trkpt lat="42.41988" lon="0.0144">
        <ele>1039.8</ele>
        <time>2016-07-31T08:22:30Z</time>
      </trkpt>
      <trkpt lat="42.41987" lon="0.01447">
        <ele>1040.3</ele>
        <time>2016-07-31T08:22:32Z</time>
      </trkpt>
      <trkpt lat="42.41986" lon="0.0145">
        <ele>1040.6</ele>
        <time>2016-07-31T08:22:33Z</time>
      </trkpt>
      <trkpt lat="42.41985" lon="0.01455">
        <ele>1040.9</ele>
        <time>2016-07-31T08:22:34Z</time>
      </trkpt>
      <trkpt lat="42.41985" lon="0.01459">
        <ele>1041.2</ele>
        <time>2016-07-31T08:22:35Z</time>
      </trkpt>
      <trkpt lat="42.41984" lon="0.01463">
        <ele>1041.5</ele>
        <time>2016-07-31T08:22:36Z</time>
      </trkpt>
      <trkpt lat="42.41984" lon="0.01467">
        <ele>1041.8</ele>
        <time>2016-07-31T08:22:37Z</time>
      </trkpt>
      <trkpt lat="42.41983" lon="0.01471">
        <ele>1042.1</ele>
        <time>2016-07-31T08:22:38Z</time>
      </trkpt>
      <trkpt lat="42.41983" lon="0.01474">
        <ele>1042.3</ele>
        <time>2016-07-31T08:22:39Z</time>
      </trkpt>
      <trkpt lat="42.41982" lon="0.01478">
        <ele>1042.6</ele>
        <time>2016-07-31T08:22:40Z</time>
      </trkpt>
      <trkpt lat="42.41982" lon="0.01482">
        <ele>1042.8</ele>
        <time>2016-07-31T08:22:41Z</time>
      </trkpt>
      <trkpt lat="42.41981" lon="0.01488">
        <ele>1043.4</ele>
        <time>2016-07-31T08:22:43Z</time>
      </trkpt>
      <trkpt lat="42.41981" lon="0.01492">
        <ele>1043.7</ele>
        <time>2016-07-31T08:22:44Z</time>
      </trkpt>
      <trkpt lat="42.41981" lon="0.01496">
        <ele>1044</ele>
        <time>2016-07-31T08:22:45Z</time>
      </trkpt>
      <trkpt lat="42.4198" lon="0.01501">
        <ele>1044.3</ele>
        <time>2016-07-31T08:22:46Z</time>
      </trkpt>
      <trkpt lat="42.41979" lon="0.01505">
        <ele>1044.7</ele>
        <time>2016-07-31T08:22:47Z</time>
      </trkpt>
      <trkpt lat="42.41979" lon="0.01509">
        <ele>1045</ele>
        <time>2016-07-31T08:22:48Z</time>
      </trkpt>
      <trkpt lat="42.41978" lon="0.01514">
        <ele>1045.4</ele>
        <time>2016-07-31T08:22:49Z</time>
      </trkpt>
      <trkpt lat="42.41978" lon="0.01518">
        <ele>1045.8</ele>
        <time>2016-07-31T08:22:50Z</time>
      </trkpt>
      <trkpt lat="42.41977" lon="0.01523">
        <ele>1046.2</ele>
        <time>2016-07-31T08:22:51Z</time>
      </trkpt>
      <trkpt lat="42.41976" lon="0.01529">
        <ele>1046.7</ele>
        <time>2016-07-31T08:22:52Z</time>
      </trkpt>
      <trkpt lat="42.41976" lon="0.01534">
        <ele>1047.1</ele>
        <time>2016-07-31T08:22:53Z</time>
      </trkpt>
      <trkpt lat="42.41975" lon="0.01539">
        <ele>1047.6</ele>
        <time>2016-07-31T08:22:54Z</time>
      </trkpt>
      <trkpt lat="42.41975" lon="0.01545">
        <ele>1047.8</ele>
        <time>2016-07-31T08:22:55Z</time>
      </trkpt>
      <trkpt lat="42.41974" lon="0.0155">
        <ele>1047.7</ele>
        <time>2016-07-31T08:22:56Z</time>
      </trkpt>
      <trkpt lat="42.41974" lon="0.01555">
        <ele>1047.6</ele>
        <time>2016-07-31T08:22:57Z</time>
      </trkpt>
      <trkpt lat="42.41974" lon="0.01561">
        <ele>1047.6</ele>
        <time>2016-07-31T08:22:58Z</time>
      </trkpt>
      <trkpt lat="42.41974" lon="0.01567">
        <ele>1047.5</ele>
        <time>2016-07-31T08:22:59Z</time>
      </trkpt>
      <trkpt lat="42.41974" lon="0.01573">
        <ele>1047.4</ele>
        <time>2016-07-31T08:23:00Z</time>
      </trkpt>
      <trkpt lat="42.41974" lon="0.01579">
        <ele>1047.4</ele>
        <time>2016-07-31T08:23:01Z</time>
      </trkpt>
      <trkpt lat="42.41974" lon="0.01586">
        <ele>1047.3</ele>
        <time>2016-07-31T08:23:02Z</time>
      </trkpt>
      <trkpt lat="42.41974" lon="0.0159">
        <ele>1047.2</ele>
        <time>2016-07-31T08:23:03Z</time>
      </trkpt>
      <trkpt lat="42.41974" lon="0.01595">
        <ele>1047.2</ele>
        <time>2016-07-31T08:23:04Z</time>
      </trkpt>
      <trkpt lat="42.41974" lon="0.01601">
        <ele>1047.1</ele>
        <time>2016-07-31T08:23:05Z</time>
      </trkpt>
      <trkpt lat="42.41974" lon="0.01607">
        <ele>1047</ele>
        <time>2016-07-31T08:23:06Z</time>
      </trkpt>
      <trkpt lat="42.41974" lon="0.01612">
        <ele>1047</ele>
        <time>2016-07-31T08:23:07Z</time>
      </trkpt>
      <trkpt lat="42.41974" lon="0.01617">
        <ele>1046.9</ele>
        <time>2016-07-31T08:23:08Z</time>
      </trkpt>
      <trkpt lat="42.41974" lon="0.01623">
        <ele>1046.8</ele>
        <time>2016-07-31T08:23:09Z</time>
      </trkpt>
      <trkpt lat="42.41973" lon="0.01629">
        <ele>1046.9</ele>
        <time>2016-07-31T08:23:10Z</time>
      </trkpt>
      <trkpt lat="42.41973" lon="0.01635">
        <ele>1046.9</ele>
        <time>2016-07-31T08:23:11Z</time>
      </trkpt>
      <trkpt lat="42.41973" lon="0.0164">
        <ele>1046.9</ele>
        <time>2016-07-31T08:23:12Z</time>
      </trkpt>
      <trkpt lat="42.41973" lon="0.01646">
        <ele>1047</ele>
        <time>2016-07-31T08:23:13Z</time>
      </trkpt>
      <trkpt lat="42.41973" lon="0.01652">
        <ele>1047</ele>
        <time>2016-07-31T08:23:14Z</time>
      </trkpt>
      <trkpt lat="42.41974" lon="0.01658">
        <ele>1047</ele>
        <time>2016-07-31T08:23:15Z</time>
      </trkpt>
      <trkpt lat="42.41974" lon="0.01663">
        <ele>1047.1</ele>
        <time>2016-07-31T08:23:16Z</time>
      </trkpt>
      <trkpt lat="42.41975" lon="0.01669">
        <ele>1047.1</ele>
        <time>2016-07-31T08:23:17Z</time>
      </trkpt>
      <trkpt lat="42.41976" lon="0.01674">
        <ele>1047.2</ele>
        <time>2016-07-31T08:23:18Z</time>
      </trkpt>
      <trkpt lat="42.41977" lon="0.01679">
        <ele>1047.2</ele>
        <time>2016-07-31T08:23:19Z</time>
      </trkpt>
      <trkpt lat="42.41978" lon="0.01684">
        <ele>1047.3</ele>
        <time>2016-07-31T08:23:20Z</time>
      </trkpt>
      <trkpt lat="42.4198" lon="0.01689">
        <ele>1047.3</ele>
        <time>2016-07-31T08:23:21Z</time>
      </trkpt>
      <trkpt lat="42.41982" lon="0.01694">
        <ele>1047.4</ele>
        <time>2016-07-31T08:23:22Z</time>
      </trkpt>
      <trkpt lat="42.41984" lon="0.01699">
        <ele>1047.5</ele>
        <time>2016-07-31T08:23:23Z</time>
      </trkpt>
      <trkpt lat="42.41986" lon="0.01703">
        <ele>1047.6</ele>
        <time>2016-07-31T08:23:24Z</time>
      </trkpt>
      <trkpt lat="42.41989" lon="0.01708">
        <ele>1047.7</ele>
        <time>2016-07-31T08:23:25Z</time>
      </trkpt>
      <trkpt lat="42.41991" lon="0.01712">
        <ele>1047.8</ele>
        <time>2016-07-31T08:23:26Z</time>
      </trkpt>
      <trkpt lat="42.41992" lon="0.01716">
        <ele>1047.9</ele>
        <time>2016-07-31T08:23:27Z</time>
      </trkpt>
      <trkpt lat="42.41995" lon="0.0172">
        <ele>1047.9</ele>
        <time>2016-07-31T08:23:28Z</time>
      </trkpt>
      <trkpt lat="42.41997" lon="0.01724">
        <ele>1048</ele>
        <time>2016-07-31T08:23:29Z</time>
      </trkpt>
      <trkpt lat="42.41999" lon="0.01727">
        <ele>1048.1</ele>
        <time>2016-07-31T08:23:30Z</time>
      </trkpt>
      <trkpt lat="42.42002" lon="0.01731">
        <ele>1048.2</ele>
        <time>2016-07-31T08:23:31Z</time>
      </trkpt>
      <trkpt lat="42.42004" lon="0.01734">
        <ele>1048.3</ele>
        <time>2016-07-31T08:23:32Z</time>
      </trkpt>
      <trkpt lat="42.42006" lon="0.01737">
        <ele>1048.4</ele>
        <time>2016-07-31T08:23:33Z</time>
      </trkpt>
      <trkpt lat="42.42009" lon="0.0174">
        <ele>1048.4</ele>
        <time>2016-07-31T08:23:34Z</time>
      </trkpt>
      <trkpt lat="42.42011" lon="0.01742">
        <ele>1048.5</ele>
        <time>2016-07-31T08:23:35Z</time>
      </trkpt>
      <trkpt lat="42.42013" lon="0.01745">
        <ele>1048.6</ele>
        <time>2016-07-31T08:23:36Z</time>
      </trkpt>
      <trkpt lat="42.42016" lon="0.0175">
        <ele>1048.7</ele>
        <time>2016-07-31T08:23:38Z</time>
      </trkpt>
      <trkpt lat="42.42017" lon="0.01754">
        <ele>1048.8</ele>
        <time>2016-07-31T08:23:39Z</time>
      </trkpt>
      <trkpt lat="42.42019" lon="0.01757">
        <ele>1048.9</ele>
        <time>2016-07-31T08:23:40Z</time>
      </trkpt>
      <trkpt lat="42.4202" lon="0.0176">
        <ele>1048.9</ele>
        <time>2016-07-31T08:23:41Z</time>
      </trkpt>
      <trkpt lat="42.42021" lon="0.01764">
        <ele>1049</ele>
        <time>2016-07-31T08:23:42Z</time>
      </trkpt>
      <trkpt lat="42.42022" lon="0.01768">
        <ele>1049.1</ele>
        <time>2016-07-31T08:23:43Z</time>
      </trkpt>
      <trkpt lat="42.42023" lon="0.01772">
        <ele>1049.1</ele>
        <time>2016-07-31T08:23:44Z</time>
      </trkpt>
      <trkpt lat="42.42023" lon="0.01775">
        <ele>1049.2</ele>
        <time>2016-07-31T08:23:45Z</time>
      </trkpt>
      <trkpt lat="42.42024" lon="0.01779">
        <ele>1049.2</ele>
        <time>2016-07-31T08:23:46Z</time>
      </trkpt>
      <trkpt lat="42.42025" lon="0.01783">
        <ele>1049.3</ele>
        <time>2016-07-31T08:23:47Z</time>
      </trkpt>
      <trkpt lat="42.42026" lon="0.01787">
        <ele>1049.4</ele>
        <time>2016-07-31T08:23:48Z</time>
      </trkpt>
      <trkpt lat="42.42027" lon="0.0179">
        <ele>1049.4</ele>
        <time>2016-07-31T08:23:49Z</time>
      </trkpt>
      <trkpt lat="42.42028" lon="0.01794">
        <ele>1049.6</ele>
        <time>2016-07-31T08:23:50Z</time>
      </trkpt>
      <trkpt lat="42.42028" lon="0.01798">
        <ele>1049.8</ele>
        <time>2016-07-31T08:23:51Z</time>
      </trkpt>
      <trkpt lat="42.42029" lon="0.01801">
        <ele>1050.1</ele>
        <time>2016-07-31T08:23:52Z</time>
      </trkpt>
      <trkpt lat="42.4203" lon="0.01805">
        <ele>1050.3</ele>
        <time>2016-07-31T08:23:53Z</time>
      </trkpt>
      <trkpt lat="42.42031" lon="0.01812">
        <ele>1050.7</ele>
        <time>2016-07-31T08:23:55Z</time>
      </trkpt>
      <trkpt lat="42.42032" lon="0.01818">
        <ele>1051.1</ele>
        <time>2016-07-31T08:23:57Z</time>
      </trkpt>
      <trkpt lat="42.42033" lon="0.01824">
        <ele>1051.4</ele>
        <time>2016-07-31T08:23:59Z</time>
      </trkpt>
      <trkpt lat="42.42034" lon="0.0183">
        <ele>1051.8</ele>
        <time>2016-07-31T08:24:01Z</time>
      </trkpt>
      <trkpt lat="42.42034" lon="0.01836">
        <ele>1052.1</ele>
        <time>2016-07-31T08:24:03Z</time>
      </trkpt>
      <trkpt lat="42.42034" lon="0.01841">
        <ele>1052.5</ele>
        <time>2016-07-31T08:24:05Z</time>
      </trkpt>
      <trkpt lat="42.42033" lon="0.01847">
        <ele>1052.7</ele>
        <time>2016-07-31T08:24:07Z</time>
      </trkpt>
      <trkpt lat="42.4203" lon="0.01853">
        <ele>1052.9</ele>
        <time>2016-07-31T08:24:09Z</time>
      </trkpt>
      <trkpt lat="42.42028" lon="0.01859">
        <ele>1053</ele>
        <time>2016-07-31T08:24:11Z</time>
      </trkpt>
      <trkpt lat="42.42025" lon="0.01864">
        <ele>1053.1</ele>
        <time>2016-07-31T08:24:13Z</time>
      </trkpt>
      <trkpt lat="42.42022" lon="0.01869">
        <ele>1053.1</ele>
        <time>2016-07-31T08:24:15Z</time>
      </trkpt>
      <trkpt lat="42.42019" lon="0.01874">
        <ele>1053.1</ele>
        <time>2016-07-31T08:24:17Z</time>
      </trkpt>
      <trkpt lat="42.42016" lon="0.01879">
        <ele>1053.2</ele>
        <time>2016-07-31T08:24:19Z</time>
      </trkpt>
      <trkpt lat="42.42013" lon="0.01882">
        <ele>1053.3</ele>
        <time>2016-07-31T08:24:21Z</time>
      </trkpt>
      <trkpt lat="42.42009" lon="0.01887">
        <ele>1053.4</ele>
        <time>2016-07-31T08:24:23Z</time>
      </trkpt>
      <trkpt lat="42.42006" lon="0.01891">
        <ele>1053.5</ele>
        <time>2016-07-31T08:24:25Z</time>
      </trkpt>
      <trkpt lat="42.42003" lon="0.01894">
        <ele>1053.6</ele>
        <time>2016-07-31T08:24:27Z</time>
      </trkpt>
      <trkpt lat="42.42" lon="0.01897">
        <ele>1053.6</ele>
        <time>2016-07-31T08:24:29Z</time>
      </trkpt>
      <trkpt lat="42.41996" lon="0.01899">
        <ele>1053.5</ele>
        <time>2016-07-31T08:24:31Z</time>
      </trkpt>
      <trkpt lat="42.41993" lon="0.01902">
        <ele>1053.5</ele>
        <time>2016-07-31T08:24:33Z</time>
      </trkpt>
      <trkpt lat="42.4199" lon="0.01904">
        <ele>1053.4</ele>
        <time>2016-07-31T08:24:35Z</time>
      </trkpt>
      <trkpt lat="42.41988" lon="0.01907">
        <ele>1053.5</ele>
        <time>2016-07-31T08:24:37Z</time>
      </trkpt>
      <trkpt lat="42.41985" lon="0.0191">
        <ele>1053.6</ele>
        <time>2016-07-31T08:24:39Z</time>
      </trkpt>
      <trkpt lat="42.41982" lon="0.01913">
        <ele>1053.7</ele>
        <time>2016-07-31T08:24:41Z</time>
      </trkpt>
      <trkpt lat="42.41979" lon="0.01917">
        <ele>1053.8</ele>
        <time>2016-07-31T08:24:43Z</time>
      </trkpt>
      <trkpt lat="42.41976" lon="0.01921">
        <ele>1053.9</ele>
        <time>2016-07-31T08:24:45Z</time>
      </trkpt>
      <trkpt lat="42.41973" lon="0.01924">
        <ele>1053.9</ele>
        <time>2016-07-31T08:24:47Z</time>
      </trkpt>
      <trkpt lat="42.4197" lon="0.01927">
        <ele>1054</ele>
        <time>2016-07-31T08:24:49Z</time>
      </trkpt>
      <trkpt lat="42.41967" lon="0.01931">
        <ele>1054.2</ele>
        <time>2016-07-31T08:24:51Z</time>
      </trkpt>
      <trkpt lat="42.41965" lon="0.01936">
        <ele>1054.4</ele>
        <time>2016-07-31T08:24:53Z</time>
      </trkpt>
      <trkpt lat="42.41962" lon="0.0194">
        <ele>1054.6</ele>
        <time>2016-07-31T08:24:55Z</time>
      </trkpt>
      <trkpt lat="42.4196" lon="0.01945">
        <ele>1054.9</ele>
        <time>2016-07-31T08:24:57Z</time>
      </trkpt>
      <trkpt lat="42.41959" lon="0.01951">
        <ele>1055.3</ele>
        <time>2016-07-31T08:24:59Z</time>
      </trkpt>
      <trkpt lat="42.41959" lon="0.01957">
        <ele>1055.9</ele>
        <time>2016-07-31T08:25:01Z</time>
      </trkpt>
      <trkpt lat="42.41961" lon="0.01962">
        <ele>1056.5</ele>
        <time>2016-07-31T08:25:03Z</time>
      </trkpt>
      <trkpt lat="42.41964" lon="0.01966">
        <ele>1057.1</ele>
        <time>2016-07-31T08:25:05Z</time>
      </trkpt>
      <trkpt lat="42.41967" lon="0.01968">
        <ele>1057.6</ele>
        <time>2016-07-31T08:25:07Z</time>
      </trkpt>
      <trkpt lat="42.41971" lon="0.0197">
        <ele>1058.1</ele>
        <time>2016-07-31T08:25:09Z</time>
      </trkpt>
      <trkpt lat="42.41975" lon="0.01971">
        <ele>1058.6</ele>
        <time>2016-07-31T08:25:11Z</time>
      </trkpt>
      <trkpt lat="42.41979" lon="0.01973">
        <ele>1059</ele>
        <time>2016-07-31T08:25:13Z</time>
      </trkpt>
      <trkpt lat="42.41982" lon="0.01975">
        <ele>1059.5</ele>
        <time>2016-07-31T08:25:15Z</time>
      </trkpt>
      <trkpt lat="42.41985" lon="0.01979">
        <ele>1060.1</ele>
        <time>2016-07-31T08:25:17Z</time>
      </trkpt>
      <trkpt lat="42.41988" lon="0.01982">
        <ele>1060.7</ele>
        <time>2016-07-31T08:25:19Z</time>
      </trkpt>
      <trkpt lat="42.41991" lon="0.01985">
        <ele>1061.2</ele>
        <time>2016-07-31T08:25:21Z</time>
      </trkpt>
      <trkpt lat="42.41993" lon="0.01989">
        <ele>1061.8</ele>
        <time>2016-07-31T08:25:23Z</time>
      </trkpt>
      <trkpt lat="42.41995" lon="0.01993">
        <ele>1062.3</ele>
        <time>2016-07-31T08:25:25Z</time>
      </trkpt>
      <trkpt lat="42.41999" lon="0.01995">
        <ele>1062.9</ele>
        <time>2016-07-31T08:25:27Z</time>
      </trkpt>
      <trkpt lat="42.42004" lon="0.01996">
        <ele>1063.4</ele>
        <time>2016-07-31T08:25:29Z</time>
      </trkpt>
      <trkpt lat="42.42008" lon="0.01994">
        <ele>1063.7</ele>
        <time>2016-07-31T08:25:31Z</time>
      </trkpt>
      <trkpt lat="42.42012" lon="0.01992">
        <ele>1063.8</ele>
        <time>2016-07-31T08:25:33Z</time>
      </trkpt>
      <trkpt lat="42.42016" lon="0.01989">
        <ele>1063.9</ele>
        <time>2016-07-31T08:25:35Z</time>
      </trkpt>
      <trkpt lat="42.42019" lon="0.01985">
        <ele>1063.8</ele>
        <time>2016-07-31T08:25:37Z</time>
      </trkpt>
      <trkpt lat="42.42022" lon="0.01982">
        <ele>1063.8</ele>
        <time>2016-07-31T08:25:39Z</time>
      </trkpt>
      <trkpt lat="42.42027" lon="0.01981">
        <ele>1064.2</ele>
        <time>2016-07-31T08:25:41Z</time>
      </trkpt>
      <trkpt lat="42.42032" lon="0.0198">
        <ele>1064.4</ele>
        <time>2016-07-31T08:25:43Z</time>
      </trkpt>
      <trkpt lat="42.42036" lon="0.01978">
        <ele>1064.6</ele>
        <time>2016-07-31T08:25:45Z</time>
      </trkpt>
      <trkpt lat="42.4204" lon="0.01975">
        <ele>1064.7</ele>
        <time>2016-07-31T08:25:47Z</time>
      </trkpt>
      <trkpt lat="42.42044" lon="0.01974">
        <ele>1064.9</ele>
        <time>2016-07-31T08:25:49Z</time>
      </trkpt>
      <trkpt lat="42.42048" lon="0.01971">
        <ele>1065.1</ele>
        <time>2016-07-31T08:25:51Z</time>
      </trkpt>
      <trkpt lat="42.42052" lon="0.0197">
        <ele>1065.3</ele>
        <time>2016-07-31T08:25:53Z</time>
      </trkpt>
      <trkpt lat="42.42055" lon="0.01968">
        <ele>1065.5</ele>
        <time>2016-07-31T08:25:55Z</time>
      </trkpt>
      <trkpt lat="42.42059" lon="0.01966">
        <ele>1065.7</ele>
        <time>2016-07-31T08:25:57Z</time>
      </trkpt>
      <trkpt lat="42.42063" lon="0.01964">
        <ele>1065.8</ele>
        <time>2016-07-31T08:25:59Z</time>
      </trkpt>
      <trkpt lat="42.42067" lon="0.01962">
        <ele>1066.1</ele>
        <time>2016-07-31T08:26:01Z</time>
      </trkpt>
      <trkpt lat="42.42072" lon="0.01959">
        <ele>1066.3</ele>
        <time>2016-07-31T08:26:04Z</time>
      </trkpt>
      <trkpt lat="42.42075" lon="0.01956">
        <ele>1066.4</ele>
        <time>2016-07-31T08:26:06Z</time>
      </trkpt>
      <trkpt lat="42.42079" lon="0.01954">
        <ele>1066.5</ele>
        <time>2016-07-31T08:26:08Z</time>
      </trkpt>
      <trkpt lat="42.42083" lon="0.01952">
        <ele>1066.8</ele>
        <time>2016-07-31T08:26:10Z</time>
      </trkpt>
      <trkpt lat="42.42088" lon="0.0195">
        <ele>1067</ele>
        <time>2016-07-31T08:26:12Z</time>
      </trkpt>
      <trkpt lat="42.42092" lon="0.01948">
        <ele>1067.2</ele>
        <time>2016-07-31T08:26:14Z</time>
      </trkpt>
      <trkpt lat="42.42095" lon="0.01946">
        <ele>1067.3</ele>
        <time>2016-07-31T08:26:16Z</time>
      </trkpt>
      <trkpt lat="42.42099" lon="0.01944">
        <ele>1067.5</ele>
        <time>2016-07-31T08:26:18Z</time>
      </trkpt>
      <trkpt lat="42.42103" lon="0.01943">
        <ele>1067.7</ele>
        <time>2016-07-31T08:26:20Z</time>
      </trkpt>
      <trkpt lat="42.42107" lon="0.01943">
        <ele>1068.2</ele>
        <time>2016-07-31T08:26:22Z</time>
      </trkpt>
      <trkpt lat="42.42111" lon="0.01945">
        <ele>1068.8</ele>
        <time>2016-07-31T08:26:24Z</time>
      </trkpt>
      <trkpt lat="42.42113" lon="0.0195">
        <ele>1069.6</ele>
        <time>2016-07-31T08:26:26Z</time>
      </trkpt>
      <trkpt lat="42.42115" lon="0.01956">
        <ele>1070.6</ele>
        <time>2016-07-31T08:26:28Z</time>
      </trkpt>
      <trkpt lat="42.42115" lon="0.0196">
        <ele>1071.1</ele>
        <time>2016-07-31T08:26:29Z</time>
      </trkpt>
      <trkpt lat="42.42116" lon="0.01964">
        <ele>1071.5</ele>
        <time>2016-07-31T08:26:30Z</time>
      </trkpt>
      <trkpt lat="42.42116" lon="0.01968">
        <ele>1071.9</ele>
        <time>2016-07-31T08:26:31Z</time>
      </trkpt>
      <trkpt lat="42.42117" lon="0.01973">
        <ele>1072.4</ele>
        <time>2016-07-31T08:26:32Z</time>
      </trkpt>
      <trkpt lat="42.42117" lon="0.01978">
        <ele>1072.9</ele>
        <time>2016-07-31T08:26:33Z</time>
      </trkpt>
      <trkpt lat="42.42118" lon="0.01983">
        <ele>1073.4</ele>
        <time>2016-07-31T08:26:34Z</time>
      </trkpt>
      <trkpt lat="42.42119" lon="0.01988">
        <ele>1073.9</ele>
        <time>2016-07-31T08:26:35Z</time>
      </trkpt>
      <trkpt lat="42.4212" lon="0.01993">
        <ele>1074.4</ele>
        <time>2016-07-31T08:26:36Z</time>
      </trkpt>
      <trkpt lat="42.42121" lon="0.01998">
        <ele>1074.9</ele>
        <time>2016-07-31T08:26:37Z</time>
      </trkpt>
      <trkpt lat="42.42121" lon="0.02003">
        <ele>1075.4</ele>
        <time>2016-07-31T08:26:38Z</time>
      </trkpt>
      <trkpt lat="42.42122" lon="0.02007">
        <ele>1075.9</ele>
        <time>2016-07-31T08:26:39Z</time>
      </trkpt>
      <trkpt lat="42.42123" lon="0.02012">
        <ele>1076.3</ele>
        <time>2016-07-31T08:26:40Z</time>
      </trkpt>
      <trkpt lat="42.42124" lon="0.02016">
        <ele>1076.7</ele>
        <time>2016-07-31T08:26:41Z</time>
      </trkpt>
      <trkpt lat="42.42125" lon="0.0202">
        <ele>1077.2</ele>
        <time>2016-07-31T08:26:42Z</time>
      </trkpt>
      <trkpt lat="42.42126" lon="0.02024">
        <ele>1077.7</ele>
        <time>2016-07-31T08:26:43Z</time>
      </trkpt>
      <trkpt lat="42.42127" lon="0.02028">
        <ele>1078.2</ele>
        <time>2016-07-31T08:26:44Z</time>
      </trkpt>
      <trkpt lat="42.42129" lon="0.02032">
        <ele>1078.7</ele>
        <time>2016-07-31T08:26:45Z</time>
      </trkpt>
      <trkpt lat="42.4213" lon="0.02037">
        <ele>1079.3</ele>
        <time>2016-07-31T08:26:46Z</time>
      </trkpt>
      <trkpt lat="42.42131" lon="0.02041">
        <ele>1079.8</ele>
        <time>2016-07-31T08:26:47Z</time>
      </trkpt>
      <trkpt lat="42.42133" lon="0.02045">
        <ele>1080.1</ele>
        <time>2016-07-31T08:26:48Z</time>
      </trkpt>
      <trkpt lat="42.42134" lon="0.02049">
        <ele>1080.3</ele>
        <time>2016-07-31T08:26:49Z</time>
      </trkpt>
      <trkpt lat="42.42136" lon="0.02054">
        <ele>1080.5</ele>
        <time>2016-07-31T08:26:50Z</time>
      </trkpt>
      <trkpt lat="42.42138" lon="0.02058">
        <ele>1080.7</ele>
        <time>2016-07-31T08:26:51Z</time>
      </trkpt>
      <trkpt lat="42.4214" lon="0.02062">
        <ele>1080.9</ele>
        <time>2016-07-31T08:26:52Z</time>
      </trkpt>
      <trkpt lat="42.42144" lon="0.0207">
        <ele>1081.4</ele>
        <time>2016-07-31T08:26:54Z</time>
      </trkpt>
      <trkpt lat="42.42146" lon="0.02074">
        <ele>1081.6</ele>
        <time>2016-07-31T08:26:55Z</time>
      </trkpt>
      <trkpt lat="42.42148" lon="0.02078">
        <ele>1081.8</ele>
        <time>2016-07-31T08:26:56Z</time>
      </trkpt>
      <trkpt lat="42.4215" lon="0.02081">
        <ele>1082</ele>
        <time>2016-07-31T08:26:57Z</time>
      </trkpt>
      <trkpt lat="42.42151" lon="0.02085">
        <ele>1082.1</ele>
        <time>2016-07-31T08:26:58Z</time>
      </trkpt>
      <trkpt lat="42.42153" lon="0.02089">
        <ele>1082.3</ele>
        <time>2016-07-31T08:26:59Z</time>
      </trkpt>
      <trkpt lat="42.42154" lon="0.02094">
        <ele>1082.3</ele>
        <time>2016-07-31T08:27:00Z</time>
      </trkpt>
      <trkpt lat="42.42155" lon="0.02098">
        <ele>1082.4</ele>
        <time>2016-07-31T08:27:01Z</time>
      </trkpt>
      <trkpt lat="42.42156" lon="0.02102">
        <ele>1082.4</ele>
        <time>2016-07-31T08:27:02Z</time>
      </trkpt>
      <trkpt lat="42.42157" lon="0.02106">
        <ele>1082.4</ele>
        <time>2016-07-31T08:27:03Z</time>
      </trkpt>
      <trkpt lat="42.42158" lon="0.0211">
        <ele>1082.4</ele>
        <time>2016-07-31T08:27:04Z</time>
      </trkpt>
      <trkpt lat="42.42158" lon="0.02114">
        <ele>1082.4</ele>
        <time>2016-07-31T08:27:05Z</time>
      </trkpt>
      <trkpt lat="42.42159" lon="0.02117">
        <ele>1082.4</ele>
        <time>2016-07-31T08:27:06Z</time>
      </trkpt>
      <trkpt lat="42.4216" lon="0.02121">
        <ele>1082.4</ele>
        <time>2016-07-31T08:27:07Z</time>
      </trkpt>
      <trkpt lat="42.4216" lon="0.02125">
        <ele>1082.4</ele>
        <time>2016-07-31T08:27:08Z</time>
      </trkpt>
      <trkpt lat="42.4216" lon="0.02128">
        <ele>1082.6</ele>
        <time>2016-07-31T08:27:09Z</time>
      </trkpt>
      <trkpt lat="42.42161" lon="0.02132">
        <ele>1083</ele>
        <time>2016-07-31T08:27:10Z</time>
      </trkpt>
      <trkpt lat="42.42161" lon="0.02136">
        <ele>1083.3</ele>
        <time>2016-07-31T08:27:11Z</time>
      </trkpt>
      <trkpt lat="42.42162" lon="0.0214">
        <ele>1083.6</ele>
        <time>2016-07-31T08:27:12Z</time>
      </trkpt>
      <trkpt lat="42.42163" lon="0.02143">
        <ele>1083.9</ele>
        <time>2016-07-31T08:27:13Z</time>
      </trkpt>
      <trkpt lat="42.42163" lon="0.02147">
        <ele>1084.2</ele>
        <time>2016-07-31T08:27:14Z</time>
      </trkpt>
      <trkpt lat="42.42165" lon="0.02154">
        <ele>1084.8</ele>
        <time>2016-07-31T08:27:16Z</time>
      </trkpt>
      <trkpt lat="42.42166" lon="0.0216">
        <ele>1085.3</ele>
        <time>2016-07-31T08:27:18Z</time>
      </trkpt>
      <trkpt lat="42.42168" lon="0.02167">
        <ele>1085.8</ele>
        <time>2016-07-31T08:27:20Z</time>
      </trkpt>
      <trkpt lat="42.42169" lon="0.02173">
        <ele>1086.2</ele>
        <time>2016-07-31T08:27:22Z</time>
      </trkpt>
      <trkpt lat="42.4217" lon="0.02179">
        <ele>1086.7</ele>
        <time>2016-07-31T08:27:24Z</time>
      </trkpt>
      <trkpt lat="42.42171" lon="0.02185">
        <ele>1087</ele>
        <time>2016-07-31T08:27:26Z</time>
      </trkpt>
      <trkpt lat="42.42172" lon="0.0219">
        <ele>1087.4</ele>
        <time>2016-07-31T08:27:28Z</time>
      </trkpt>
      <trkpt lat="42.42173" lon="0.02196">
        <ele>1087.7</ele>
        <time>2016-07-31T08:27:30Z</time>
      </trkpt>
      <trkpt lat="42.42174" lon="0.02201">
        <ele>1088</ele>
        <time>2016-07-31T08:27:32Z</time>
      </trkpt>
      <trkpt lat="42.42175" lon="0.02207">
        <ele>1088.3</ele>
        <time>2016-07-31T08:27:34Z</time>
      </trkpt>
      <trkpt lat="42.42176" lon="0.02212">
        <ele>1088.7</ele>
        <time>2016-07-31T08:27:36Z</time>
      </trkpt>
      <trkpt lat="42.42177" lon="0.02218">
        <ele>1089.1</ele>
        <time>2016-07-31T08:27:38Z</time>
      </trkpt>
      <trkpt lat="42.42178" lon="0.02223">
        <ele>1089.5</ele>
        <time>2016-07-31T08:27:40Z</time>
      </trkpt>
      <trkpt lat="42.42179" lon="0.02228">
        <ele>1090</ele>
        <time>2016-07-31T08:27:42Z</time>
      </trkpt>
      <trkpt lat="42.4218" lon="0.02234">
        <ele>1090.4</ele>
        <time>2016-07-31T08:27:44Z</time>
      </trkpt>
      <trkpt lat="42.42181" lon="0.02239">
        <ele>1090.7</ele>
        <time>2016-07-31T08:27:46Z</time>
      </trkpt>
      <trkpt lat="42.42182" lon="0.02244">
        <ele>1091.1</ele>
        <time>2016-07-31T08:27:48Z</time>
      </trkpt>
      <trkpt lat="42.42183" lon="0.02249">
        <ele>1091.5</ele>
        <time>2016-07-31T08:27:50Z</time>
      </trkpt>
      <trkpt lat="42.42184" lon="0.02254">
        <ele>1091.9</ele>
        <time>2016-07-31T08:27:52Z</time>
      </trkpt>
      <trkpt lat="42.42185" lon="0.02259">
        <ele>1092.2</ele>
        <time>2016-07-31T08:27:54Z</time>
      </trkpt>
      <trkpt lat="42.42186" lon="0.02264">
        <ele>1092.6</ele>
        <time>2016-07-31T08:27:56Z</time>
      </trkpt>
      <trkpt lat="42.42187" lon="0.02268">
        <ele>1092.9</ele>
        <time>2016-07-31T08:27:58Z</time>
      </trkpt>
      <trkpt lat="42.42188" lon="0.02273">
        <ele>1093.3</ele>
        <time>2016-07-31T08:28:00Z</time>
      </trkpt>
      <trkpt lat="42.42189" lon="0.02278">
        <ele>1093.6</ele>
        <time>2016-07-31T08:28:02Z</time>
      </trkpt>
      <trkpt lat="42.4219" lon="0.02282">
        <ele>1093.9</ele>
        <time>2016-07-31T08:28:04Z</time>
      </trkpt>
      <trkpt lat="42.42192" lon="0.02287">
        <ele>1094.2</ele>
        <time>2016-07-31T08:28:06Z</time>
      </trkpt>
      <trkpt lat="42.42193" lon="0.02291">
        <ele>1094.5</ele>
        <time>2016-07-31T08:28:08Z</time>
      </trkpt>
      <trkpt lat="42.42194" lon="0.02296">
        <ele>1094.9</ele>
        <time>2016-07-31T08:28:10Z</time>
      </trkpt>
      <trkpt lat="42.42195" lon="0.02301">
        <ele>1095.1</ele>
        <time>2016-07-31T08:28:12Z</time>
      </trkpt>
      <trkpt lat="42.42197" lon="0.02305">
        <ele>1095.4</ele>
        <time>2016-07-31T08:28:14Z</time>
      </trkpt>
      <trkpt lat="42.42198" lon="0.0231">
        <ele>1095.8</ele>
        <time>2016-07-31T08:28:16Z</time>
      </trkpt>
      <trkpt lat="42.42199" lon="0.02315">
        <ele>1096.1</ele>
        <time>2016-07-31T08:28:18Z</time>
      </trkpt>
      <trkpt lat="42.422" lon="0.02319">
        <ele>1096.4</ele>
        <time>2016-07-31T08:28:20Z</time>
      </trkpt>
      <trkpt lat="42.42202" lon="0.02323">
        <ele>1096.7</ele>
        <time>2016-07-31T08:28:22Z</time>
      </trkpt>
      <trkpt lat="42.42203" lon="0.02327">
        <ele>1097</ele>
        <time>2016-07-31T08:28:24Z</time>
      </trkpt>
      <trkpt lat="42.42205" lon="0.02331">
        <ele>1097.3</ele>
        <time>2016-07-31T08:28:26Z</time>
      </trkpt>
      <trkpt lat="42.42207" lon="0.02335">
        <ele>1097.7</ele>
        <time>2016-07-31T08:28:28Z</time>
      </trkpt>
      <trkpt lat="42.42208" lon="0.0234">
        <ele>1098.1</ele>
        <time>2016-07-31T08:28:30Z</time>
      </trkpt>
      <trkpt lat="42.42208" lon="0.02346">
        <ele>1098.6</ele>
        <time>2016-07-31T08:28:32Z</time>
      </trkpt>
      <trkpt lat="42.42209" lon="0.02352">
        <ele>1099</ele>
        <time>2016-07-31T08:28:34Z</time>
      </trkpt>
      <trkpt lat="42.4221" lon="0.02358">
        <ele>1099.5</ele>
        <time>2016-07-31T08:28:36Z</time>
      </trkpt>
      <trkpt lat="42.4221" lon="0.02364">
        <ele>1100</ele>
        <time>2016-07-31T08:28:38Z</time>
      </trkpt>
      <trkpt lat="42.4221" lon="0.0237">
        <ele>1100.5</ele>
        <time>2016-07-31T08:28:40Z</time>
      </trkpt>
      <trkpt lat="42.4221" lon="0.02376">
        <ele>1101</ele>
        <time>2016-07-31T08:28:42Z</time>
      </trkpt>
      <trkpt lat="42.4221" lon="0.02383">
        <ele>1101</ele>
        <time>2016-07-31T08:28:44Z</time>
      </trkpt>
      <trkpt lat="42.4221" lon="0.02387">
        <ele>1101.1</ele>
        <time>2016-07-31T08:28:45Z</time>
      </trkpt>
      <trkpt lat="42.42211" lon="0.02391">
        <ele>1101.1</ele>
        <time>2016-07-31T08:28:46Z</time>
      </trkpt>
      <trkpt lat="42.42211" lon="0.02394">
        <ele>1101.1</ele>
        <time>2016-07-31T08:28:47Z</time>
      </trkpt>
      <trkpt lat="42.42212" lon="0.02398">
        <ele>1101.1</ele>
        <time>2016-07-31T08:28:48Z</time>
      </trkpt>
      <trkpt lat="42.42213" lon="0.02402">
        <ele>1101.1</ele>
        <time>2016-07-31T08:28:49Z</time>
      </trkpt>
      <trkpt lat="42.42213" lon="0.02406">
        <ele>1101.1</ele>
        <time>2016-07-31T08:28:50Z</time>
      </trkpt>
      <trkpt lat="42.42214" lon="0.0241">
        <ele>1101.1</ele>
        <time>2016-07-31T08:28:51Z</time>
      </trkpt>
      <trkpt lat="42.42216" lon="0.02414">
        <ele>1101.1</ele>
        <time>2016-07-31T08:28:52Z</time>
      </trkpt>
      <trkpt lat="42.42217" lon="0.02417">
        <ele>1101.1</ele>
        <time>2016-07-31T08:28:53Z</time>
      </trkpt>
      <trkpt lat="42.42218" lon="0.02421">
        <ele>1101.1</ele>
        <time>2016-07-31T08:28:54Z</time>
      </trkpt>
      <trkpt lat="42.42219" lon="0.02425">
        <ele>1101.1</ele>
        <time>2016-07-31T08:28:55Z</time>
      </trkpt>
      <trkpt lat="42.4222" lon="0.02428">
        <ele>1101</ele>
        <time>2016-07-31T08:28:56Z</time>
      </trkpt>
      <trkpt lat="42.42222" lon="0.02432">
        <ele>1101</ele>
        <time>2016-07-31T08:28:57Z</time>
      </trkpt>
      <trkpt lat="42.42223" lon="0.02435">
        <ele>1100.9</ele>
        <time>2016-07-31T08:28:58Z</time>
      </trkpt>
      <trkpt lat="42.42225" lon="0.02438">
        <ele>1100.9</ele>
        <time>2016-07-31T08:28:59Z</time>
      </trkpt>
      <trkpt lat="42.42226" lon="0.02441">
        <ele>1100.8</ele>
        <time>2016-07-31T08:29:00Z</time>
      </trkpt>
      <trkpt lat="42.42228" lon="0.02444">
        <ele>1100.7</ele>
        <time>2016-07-31T08:29:01Z</time>
      </trkpt>
      <trkpt lat="42.4223" lon="0.02447">
        <ele>1100.6</ele>
        <time>2016-07-31T08:29:02Z</time>
      </trkpt>
      <trkpt lat="42.42231" lon="0.0245">
        <ele>1100.6</ele>
        <time>2016-07-31T08:29:03Z</time>
      </trkpt>
      <trkpt lat="42.42233" lon="0.02454">
        <ele>1100.5</ele>
        <time>2016-07-31T08:29:04Z</time>
      </trkpt>
      <trkpt lat="42.42234" lon="0.02457">
        <ele>1100.5</ele>
        <time>2016-07-31T08:29:05Z</time>
      </trkpt>
      <trkpt lat="42.42235" lon="0.02461">
        <ele>1100.4</ele>
        <time>2016-07-31T08:29:06Z</time>
      </trkpt>
      <trkpt lat="42.42237" lon="0.02464">
        <ele>1100.4</ele>
        <time>2016-07-31T08:29:07Z</time>
      </trkpt>
      <trkpt lat="42.42238" lon="0.02468">
        <ele>1100.4</ele>
        <time>2016-07-31T08:29:08Z</time>
      </trkpt>
      <trkpt lat="42.42239" lon="0.02472">
        <ele>1100.5</ele>
        <time>2016-07-31T08:29:09Z</time>
      </trkpt>
      <trkpt lat="42.42239" lon="0.02476">
        <ele>1100.5</ele>
        <time>2016-07-31T08:29:10Z</time>
      </trkpt>
      <trkpt lat="42.4224" lon="0.02479">
        <ele>1100.6</ele>
        <time>2016-07-31T08:29:11Z</time>
      </trkpt>
      <trkpt lat="42.42241" lon="0.02483">
        <ele>1100.6</ele>
        <time>2016-07-31T08:29:12Z</time>
      </trkpt>
      <trkpt lat="42.42242" lon="0.02486">
        <ele>1100.7</ele>
        <time>2016-07-31T08:29:13Z</time>
      </trkpt>
      <trkpt lat="42.42243" lon="0.02493">
        <ele>1100.8</ele>
        <time>2016-07-31T08:29:15Z</time>
      </trkpt>
      <trkpt lat="42.42244" lon="0.02497">
        <ele>1100.8</ele>
        <time>2016-07-31T08:29:16Z</time>
      </trkpt>
      <trkpt lat="42.42245" lon="0.025">
        <ele>1100.9</ele>
        <time>2016-07-31T08:29:17Z</time>
      </trkpt>
      <trkpt lat="42.42246" lon="0.02504">
        <ele>1101</ele>
        <time>2016-07-31T08:29:18Z</time>
      </trkpt>
      <trkpt lat="42.42247" lon="0.02508">
        <ele>1101.1</ele>
        <time>2016-07-31T08:29:19Z</time>
      </trkpt>
      <trkpt lat="42.42247" lon="0.02511">
        <ele>1101.1</ele>
        <time>2016-07-31T08:29:20Z</time>
      </trkpt>
      <trkpt lat="42.42248" lon="0.02515">
        <ele>1101.2</ele>
        <time>2016-07-31T08:29:21Z</time>
      </trkpt>
      <trkpt lat="42.42249" lon="0.02519">
        <ele>1101.3</ele>
        <time>2016-07-31T08:29:22Z</time>
      </trkpt>
      <trkpt lat="42.4225" lon="0.02523">
        <ele>1101.4</ele>
        <time>2016-07-31T08:29:23Z</time>
      </trkpt>
      <trkpt lat="42.42251" lon="0.02527">
        <ele>1101.6</ele>
        <time>2016-07-31T08:29:24Z</time>
      </trkpt>
      <trkpt lat="42.42252" lon="0.02532">
        <ele>1101.7</ele>
        <time>2016-07-31T08:29:25Z</time>
      </trkpt>
      <trkpt lat="42.42253" lon="0.02536">
        <ele>1101.8</ele>
        <time>2016-07-31T08:29:26Z</time>
      </trkpt>
      <trkpt lat="42.42254" lon="0.0254">
        <ele>1101.9</ele>
        <time>2016-07-31T08:29:27Z</time>
      </trkpt>
      <trkpt lat="42.42255" lon="0.02544">
        <ele>1102</ele>
        <time>2016-07-31T08:29:28Z</time>
      </trkpt>
      <trkpt lat="42.42257" lon="0.02549">
        <ele>1102.1</ele>
        <time>2016-07-31T08:29:29Z</time>
      </trkpt>
      <trkpt lat="42.42258" lon="0.02552">
        <ele>1102.1</ele>
        <time>2016-07-31T08:29:30Z</time>
      </trkpt>
      <trkpt lat="42.42259" lon="0.02556">
        <ele>1102.1</ele>
        <time>2016-07-31T08:29:31Z</time>
      </trkpt>
      <trkpt lat="42.42261" lon="0.0256">
        <ele>1102.2</ele>
        <time>2016-07-31T08:29:32Z</time>
      </trkpt>
      <trkpt lat="42.42262" lon="0.02564">
        <ele>1102.2</ele>
        <time>2016-07-31T08:29:33Z</time>
      </trkpt>
      <trkpt lat="42.42264" lon="0.02567">
        <ele>1102.3</ele>
        <time>2016-07-31T08:29:34Z</time>
      </trkpt>
      <trkpt lat="42.42265" lon="0.02571">
        <ele>1102.4</ele>
        <time>2016-07-31T08:29:35Z</time>
      </trkpt>
      <trkpt lat="42.42266" lon="0.02575">
        <ele>1102.4</ele>
        <time>2016-07-31T08:29:36Z</time>
      </trkpt>
      <trkpt lat="42.42268" lon="0.02579">
        <ele>1102.5</ele>
        <time>2016-07-31T08:29:37Z</time>
      </trkpt>
      <trkpt lat="42.42269" lon="0.02582">
        <ele>1102.6</ele>
        <time>2016-07-31T08:29:38Z</time>
      </trkpt>
      <trkpt lat="42.42271" lon="0.02585">
        <ele>1102.7</ele>
        <time>2016-07-31T08:29:39Z</time>
      </trkpt>
      <trkpt lat="42.42273" lon="0.02587">
        <ele>1102.7</ele>
        <time>2016-07-31T08:29:40Z</time>
      </trkpt>
      <trkpt lat="42.42276" lon="0.0259">
        <ele>1102.8</ele>
        <time>2016-07-31T08:29:41Z</time>
      </trkpt>
      <trkpt lat="42.42278" lon="0.02592">
        <ele>1102.9</ele>
        <time>2016-07-31T08:29:42Z</time>
      </trkpt>
      <trkpt lat="42.42281" lon="0.02595">
        <ele>1103</ele>
        <time>2016-07-31T08:29:43Z</time>
      </trkpt>
      <trkpt lat="42.42283" lon="0.02597">
        <ele>1103.1</ele>
        <time>2016-07-31T08:29:44Z</time>
      </trkpt>
      <trkpt lat="42.42285" lon="0.02599">
        <ele>1103.2</ele>
        <time>2016-07-31T08:29:45Z</time>
      </trkpt>
      <trkpt lat="42.42288" lon="0.02601">
        <ele>1103.3</ele>
        <time>2016-07-31T08:29:46Z</time>
      </trkpt>
      <trkpt lat="42.4229" lon="0.02604">
        <ele>1103.4</ele>
        <time>2016-07-31T08:29:47Z</time>
      </trkpt>
      <trkpt lat="42.42292" lon="0.02606">
        <ele>1103.5</ele>
        <time>2016-07-31T08:29:48Z</time>
      </trkpt>
      <trkpt lat="42.42296" lon="0.0261">
        <ele>1103.5</ele>
        <time>2016-07-31T08:29:50Z</time>
      </trkpt>
      <trkpt lat="42.423" lon="0.02614">
        <ele>1103.5</ele>
        <time>2016-07-31T08:29:52Z</time>
      </trkpt>
      <trkpt lat="42.42305" lon="0.02617">
        <ele>1103.5</ele>
        <time>2016-07-31T08:29:54Z</time>
      </trkpt>
      <trkpt lat="42.42308" lon="0.02619">
        <ele>1103.5</ele>
        <time>2016-07-31T08:29:55Z</time>
      </trkpt>
      <trkpt lat="42.4231" lon="0.02621">
        <ele>1103.6</ele>
        <time>2016-07-31T08:29:56Z</time>
      </trkpt>
      <trkpt lat="42.42313" lon="0.02624">
        <ele>1103.7</ele>
        <time>2016-07-31T08:29:57Z</time>
      </trkpt>
      <trkpt lat="42.42315" lon="0.02627">
        <ele>1103.7</ele>
        <time>2016-07-31T08:29:58Z</time>
      </trkpt>
      <trkpt lat="42.42317" lon="0.02629">
        <ele>1103.7</ele>
        <time>2016-07-31T08:29:59Z</time>
      </trkpt>
      <trkpt lat="42.42319" lon="0.02632">
        <ele>1103.7</ele>
        <time>2016-07-31T08:30:00Z</time>
      </trkpt>
      <trkpt lat="42.42322" lon="0.02635">
        <ele>1103.7</ele>
        <time>2016-07-31T08:30:01Z</time>
      </trkpt>
      <trkpt lat="42.42324" lon="0.02638">
        <ele>1103.7</ele>
        <time>2016-07-31T08:30:02Z</time>
      </trkpt>
      <trkpt lat="42.42326" lon="0.02641">
        <ele>1103.8</ele>
        <time>2016-07-31T08:30:03Z</time>
      </trkpt>
      <trkpt lat="42.42328" lon="0.02645">
        <ele>1103.8</ele>
        <time>2016-07-31T08:30:04Z</time>
      </trkpt>
      <trkpt lat="42.42331" lon="0.02648">
        <ele>1103.9</ele>
        <time>2016-07-31T08:30:05Z</time>
      </trkpt>
      <trkpt lat="42.42333" lon="0.02651">
        <ele>1104</ele>
        <time>2016-07-31T08:30:06Z</time>
      </trkpt>
      <trkpt lat="42.42335" lon="0.02654">
        <ele>1104</ele>
        <time>2016-07-31T08:30:07Z</time>
      </trkpt>
      <trkpt lat="42.42338" lon="0.02656">
        <ele>1104.2</ele>
        <time>2016-07-31T08:30:08Z</time>
      </trkpt>
      <trkpt lat="42.4234" lon="0.02659">
        <ele>1104.3</ele>
        <time>2016-07-31T08:30:09Z</time>
      </trkpt>
      <trkpt lat="42.42343" lon="0.02662">
        <ele>1104.4</ele>
        <time>2016-07-31T08:30:10Z</time>
      </trkpt>
      <trkpt lat="42.42346" lon="0.02664">
        <ele>1104.5</ele>
        <time>2016-07-31T08:30:11Z</time>
      </trkpt>
      <trkpt lat="42.42348" lon="0.02667">
        <ele>1104.7</ele>
        <time>2016-07-31T08:30:12Z</time>
      </trkpt>
      <trkpt lat="42.42351" lon="0.02669">
        <ele>1104.9</ele>
        <time>2016-07-31T08:30:13Z</time>
      </trkpt>
      <trkpt lat="42.42353" lon="0.02671">
        <ele>1105</ele>
        <time>2016-07-31T08:30:14Z</time>
      </trkpt>
      <trkpt lat="42.42356" lon="0.02674">
        <ele>1105.2</ele>
        <time>2016-07-31T08:30:15Z</time>
      </trkpt>
      <trkpt lat="42.42358" lon="0.02676">
        <ele>1105.4</ele>
        <time>2016-07-31T08:30:16Z</time>
      </trkpt>
      <trkpt lat="42.4236" lon="0.02678">
        <ele>1105.6</ele>
        <time>2016-07-31T08:30:17Z</time>
      </trkpt>
      <trkpt lat="42.42363" lon="0.0268">
        <ele>1105.8</ele>
        <time>2016-07-31T08:30:18Z</time>
      </trkpt>
      <trkpt lat="42.42365" lon="0.02682">
        <ele>1106</ele>
        <time>2016-07-31T08:30:19Z</time>
      </trkpt>
      <trkpt lat="42.4237" lon="0.02686">
        <ele>1106.4</ele>
        <time>2016-07-31T08:30:21Z</time>
      </trkpt>
      <trkpt lat="42.42372" lon="0.02688">
        <ele>1106.6</ele>
        <time>2016-07-31T08:30:22Z</time>
      </trkpt>
      <trkpt lat="42.42374" lon="0.0269">
        <ele>1106.8</ele>
        <time>2016-07-31T08:30:23Z</time>
      </trkpt>
      <trkpt lat="42.42377" lon="0.02692">
        <ele>1106.9</ele>
        <time>2016-07-31T08:30:24Z</time>
      </trkpt>
      <trkpt lat="42.42379" lon="0.02693">
        <ele>1106.8</ele>
        <time>2016-07-31T08:30:25Z</time>
      </trkpt>
      <trkpt lat="42.42382" lon="0.02695">
        <ele>1106.7</ele>
        <time>2016-07-31T08:30:26Z</time>
      </trkpt>
      <trkpt lat="42.42385" lon="0.02696">
        <ele>1106.7</ele>
        <time>2016-07-31T08:30:27Z</time>
      </trkpt>
      <trkpt lat="42.42387" lon="0.02698">
        <ele>1106.7</ele>
        <time>2016-07-31T08:30:28Z</time>
      </trkpt>
      <trkpt lat="42.4239" lon="0.02699">
        <ele>1106.7</ele>
        <time>2016-07-31T08:30:29Z</time>
      </trkpt>
      <trkpt lat="42.42393" lon="0.02701">
        <ele>1106.7</ele>
        <time>2016-07-31T08:30:30Z</time>
      </trkpt>
      <trkpt lat="42.42395" lon="0.02703">
        <ele>1106.7</ele>
        <time>2016-07-31T08:30:31Z</time>
      </trkpt>
      <trkpt lat="42.42398" lon="0.02704">
        <ele>1106.7</ele>
        <time>2016-07-31T08:30:32Z</time>
      </trkpt>
      <trkpt lat="42.42401" lon="0.02706">
        <ele>1106.8</ele>
        <time>2016-07-31T08:30:33Z</time>
      </trkpt>
      <trkpt lat="42.42405" lon="0.02709">
        <ele>1106.9</ele>
        <time>2016-07-31T08:30:35Z</time>
      </trkpt>
      <trkpt lat="42.42408" lon="0.02711">
        <ele>1106.9</ele>
        <time>2016-07-31T08:30:37Z</time>
      </trkpt>
      <trkpt lat="42.42411" lon="0.02713">
        <ele>1106.9</ele>
        <time>2016-07-31T08:30:39Z</time>
      </trkpt>
      <trkpt lat="42.42415" lon="0.02716">
        <ele>1107</ele>
        <time>2016-07-31T08:30:41Z</time>
      </trkpt>
      <trkpt lat="42.42419" lon="0.02718">
        <ele>1107</ele>
        <time>2016-07-31T08:30:43Z</time>
      </trkpt>
      <trkpt lat="42.42422" lon="0.02722">
        <ele>1107.1</ele>
        <time>2016-07-31T08:30:45Z</time>
      </trkpt>
      <trkpt lat="42.42426" lon="0.02725">
        <ele>1107.3</ele>
        <time>2016-07-31T08:30:47Z</time>
      </trkpt>
      <trkpt lat="42.42431" lon="0.02728">
        <ele>1107.4</ele>
        <time>2016-07-31T08:30:49Z</time>
      </trkpt>
      <trkpt lat="42.42433" lon="0.0273">
        <ele>1107.5</ele>
        <time>2016-07-31T08:30:50Z</time>
      </trkpt>
      <trkpt lat="42.42436" lon="0.02731">
        <ele>1107.6</ele>
        <time>2016-07-31T08:30:51Z</time>
      </trkpt>
      <trkpt lat="42.42439" lon="0.02733">
        <ele>1107.7</ele>
        <time>2016-07-31T08:30:52Z</time>
      </trkpt>
      <trkpt lat="42.42442" lon="0.02735">
        <ele>1107.9</ele>
        <time>2016-07-31T08:30:53Z</time>
      </trkpt>
      <trkpt lat="42.42444" lon="0.02737">
        <ele>1108.1</ele>
        <time>2016-07-31T08:30:54Z</time>
      </trkpt>
      <trkpt lat="42.42447" lon="0.02739">
        <ele>1108.3</ele>
        <time>2016-07-31T08:30:55Z</time>
      </trkpt>
      <trkpt lat="42.4245" lon="0.02741">
        <ele>1108.5</ele>
        <time>2016-07-31T08:30:56Z</time>
      </trkpt>
      <trkpt lat="42.42452" lon="0.02744">
        <ele>1108.8</ele>
        <time>2016-07-31T08:30:57Z</time>
      </trkpt>
      <trkpt lat="42.42455" lon="0.02746">
        <ele>1109</ele>
        <time>2016-07-31T08:30:58Z</time>
      </trkpt>
      <trkpt lat="42.42457" lon="0.02749">
        <ele>1109.3</ele>
        <time>2016-07-31T08:30:59Z</time>
      </trkpt>
      <trkpt lat="42.4246" lon="0.02751">
        <ele>1109.5</ele>
        <time>2016-07-31T08:31:00Z</time>
      </trkpt>
      <trkpt lat="42.42462" lon="0.02753">
        <ele>1109.6</ele>
        <time>2016-07-31T08:31:01Z</time>
      </trkpt>
      <trkpt lat="42.42464" lon="0.02755">
        <ele>1109.7</ele>
        <time>2016-07-31T08:31:02Z</time>
      </trkpt>
      <trkpt lat="42.42467" lon="0.02758">
        <ele>1109.9</ele>
        <time>2016-07-31T08:31:03Z</time>
      </trkpt>
      <trkpt lat="42.4247" lon="0.02762">
        <ele>1110.2</ele>
        <time>2016-07-31T08:31:05Z</time>
      </trkpt>
      <trkpt lat="42.42474" lon="0.02766">
        <ele>1110.6</ele>
        <time>2016-07-31T08:31:07Z</time>
      </trkpt>
      <trkpt lat="42.42477" lon="0.02769">
        <ele>1110.8</ele>
        <time>2016-07-31T08:31:09Z</time>
      </trkpt>
      <trkpt lat="42.4248" lon="0.02771">
        <ele>1111</ele>
        <time>2016-07-31T08:31:11Z</time>
      </trkpt>
      <trkpt lat="42.42483" lon="0.02774">
        <ele>1111.3</ele>
        <time>2016-07-31T08:31:14Z</time>
      </trkpt>
      <trkpt lat="42.42486" lon="0.02777">
        <ele>1111.6</ele>
        <time>2016-07-31T08:31:16Z</time>
      </trkpt>
      <trkpt lat="42.42487" lon="0.02781">
        <ele>1112.2</ele>
        <time>2016-07-31T08:32:01Z</time>
      </trkpt>
      <trkpt lat="42.42489" lon="0.02784">
        <ele>1112.5</ele>
        <time>2016-07-31T08:32:03Z</time>
      </trkpt>
      <trkpt lat="42.42494" lon="0.02787">
        <ele>1112.9</ele>
        <time>2016-07-31T08:32:05Z</time>
      </trkpt>
      <trkpt lat="42.42496" lon="0.0279">
        <ele>1113.2</ele>
        <time>2016-07-31T08:32:06Z</time>
      </trkpt>
      <trkpt lat="42.42499" lon="0.02793">
        <ele>1113.5</ele>
        <time>2016-07-31T08:32:07Z</time>
      </trkpt>
      <trkpt lat="42.42501" lon="0.02796">
        <ele>1113.6</ele>
        <time>2016-07-31T08:32:08Z</time>
      </trkpt>
      <trkpt lat="42.42504" lon="0.028">
        <ele>1113.8</ele>
        <time>2016-07-31T08:32:09Z</time>
      </trkpt>
      <trkpt lat="42.42506" lon="0.02804">
        <ele>1113.9</ele>
        <time>2016-07-31T08:32:10Z</time>
      </trkpt>
      <trkpt lat="42.42508" lon="0.02807">
        <ele>1114</ele>
        <time>2016-07-31T08:32:11Z</time>
      </trkpt>
      <trkpt lat="42.42511" lon="0.0281">
        <ele>1114.1</ele>
        <time>2016-07-31T08:32:12Z</time>
      </trkpt>
      <trkpt lat="42.42514" lon="0.02813">
        <ele>1114.2</ele>
        <time>2016-07-31T08:32:13Z</time>
      </trkpt>
      <trkpt lat="42.42517" lon="0.02816">
        <ele>1114.3</ele>
        <time>2016-07-31T08:32:14Z</time>
      </trkpt>
      <trkpt lat="42.4252" lon="0.0282">
        <ele>1114.4</ele>
        <time>2016-07-31T08:32:15Z</time>
      </trkpt>
      <trkpt lat="42.42523" lon="0.02823">
        <ele>1114.6</ele>
        <time>2016-07-31T08:32:16Z</time>
      </trkpt>
      <trkpt lat="42.42526" lon="0.02827">
        <ele>1114.7</ele>
        <time>2016-07-31T08:32:17Z</time>
      </trkpt>
      <trkpt lat="42.42529" lon="0.02832">
        <ele>1114.9</ele>
        <time>2016-07-31T08:32:18Z</time>
      </trkpt>
      <trkpt lat="42.42531" lon="0.02837">
        <ele>1115.2</ele>
        <time>2016-07-31T08:32:19Z</time>
      </trkpt>
      <trkpt lat="42.42534" lon="0.02842">
        <ele>1115.4</ele>
        <time>2016-07-31T08:32:20Z</time>
      </trkpt>
      <trkpt lat="42.42536" lon="0.02848">
        <ele>1115.7</ele>
        <time>2016-07-31T08:32:21Z</time>
      </trkpt>
      <trkpt lat="42.42539" lon="0.02854">
        <ele>1116</ele>
        <time>2016-07-31T08:32:22Z</time>
      </trkpt>
      <trkpt lat="42.42542" lon="0.0286">
        <ele>1116.2</ele>
        <time>2016-07-31T08:32:23Z</time>
      </trkpt>
      <trkpt lat="42.42546" lon="0.02867">
        <ele>1116</ele>
        <time>2016-07-31T08:32:24Z</time>
      </trkpt>
      <trkpt lat="42.42549" lon="0.02874">
        <ele>1115.9</ele>
        <time>2016-07-31T08:32:25Z</time>
      </trkpt>
      <trkpt lat="42.42552" lon="0.02881">
        <ele>1115.4</ele>
        <time>2016-07-31T08:32:26Z</time>
      </trkpt>
      <trkpt lat="42.42556" lon="0.02888">
        <ele>1114.9</ele>
        <time>2016-07-31T08:32:27Z</time>
      </trkpt>
      <trkpt lat="42.42559" lon="0.02895">
        <ele>1114.4</ele>
        <time>2016-07-31T08:32:28Z</time>
      </trkpt>
      <trkpt lat="42.42563" lon="0.02901">
        <ele>1113.9</ele>
        <time>2016-07-31T08:32:29Z</time>
      </trkpt>
      <trkpt lat="42.42567" lon="0.02907">
        <ele>1113.4</ele>
        <time>2016-07-31T08:32:30Z</time>
      </trkpt>
      <trkpt lat="42.42569" lon="0.02914">
        <ele>1113</ele>
        <time>2016-07-31T08:32:31Z</time>
      </trkpt>
      <trkpt lat="42.42572" lon="0.02921">
        <ele>1112.7</ele>
        <time>2016-07-31T08:32:32Z</time>
      </trkpt>
      <trkpt lat="42.42575" lon="0.02929">
        <ele>1112.3</ele>
        <time>2016-07-31T08:32:33Z</time>
      </trkpt>
      <trkpt lat="42.42577" lon="0.02936">
        <ele>1112.1</ele>
        <time>2016-07-31T08:32:34Z</time>
      </trkpt>
      <trkpt lat="42.4258" lon="0.02944">
        <ele>1111.8</ele>
        <time>2016-07-31T08:32:35Z</time>
      </trkpt>
      <trkpt lat="42.42584" lon="0.02951">
        <ele>1111.4</ele>
        <time>2016-07-31T08:32:36Z</time>
      </trkpt>
      <trkpt lat="42.42587" lon="0.02959">
        <ele>1111.1</ele>
        <time>2016-07-31T08:32:37Z</time>
      </trkpt>
      <trkpt lat="42.4259" lon="0.02967">
        <ele>1110.3</ele>
        <time>2016-07-31T08:32:38Z</time>
      </trkpt>
      <trkpt lat="42.42593" lon="0.02976">
        <ele>1109.6</ele>
        <time>2016-07-31T08:32:39Z</time>
      </trkpt>
      <trkpt lat="42.42596" lon="0.02983">
        <ele>1108.8</ele>
        <time>2016-07-31T08:32:40Z</time>
      </trkpt>
      <trkpt lat="42.42599" lon="0.02992">
        <ele>1108.1</ele>
        <time>2016-07-31T08:32:41Z</time>
      </trkpt>
      <trkpt lat="42.42602" lon="0.03">
        <ele>1107.5</ele>
        <time>2016-07-31T08:32:42Z</time>
      </trkpt>
      <trkpt lat="42.42604" lon="0.03008">
        <ele>1106.9</ele>
        <time>2016-07-31T08:32:43Z</time>
      </trkpt>
      <trkpt lat="42.42607" lon="0.03015">
        <ele>1106.3</ele>
        <time>2016-07-31T08:32:44Z</time>
      </trkpt>
      <trkpt lat="42.4261" lon="0.03024">
        <ele>1105.7</ele>
        <time>2016-07-31T08:32:45Z</time>
      </trkpt>
      <trkpt lat="42.42613" lon="0.03031">
        <ele>1105.1</ele>
        <time>2016-07-31T08:32:46Z</time>
      </trkpt>
      <trkpt lat="42.42616" lon="0.03039">
        <ele>1104.6</ele>
        <time>2016-07-31T08:32:47Z</time>
      </trkpt>
      <trkpt lat="42.42618" lon="0.03047">
        <ele>1104</ele>
        <time>2016-07-31T08:32:48Z</time>
      </trkpt>
      <trkpt lat="42.4262" lon="0.03055">
        <ele>1103.3</ele>
        <time>2016-07-31T08:32:49Z</time>
      </trkpt>
      <trkpt lat="42.42621" lon="0.03062">
        <ele>1102.7</ele>
        <time>2016-07-31T08:32:50Z</time>
      </trkpt>
      <trkpt lat="42.42623" lon="0.03069">
        <ele>1102.1</ele>
        <time>2016-07-31T08:32:51Z</time>
      </trkpt>
      <trkpt lat="42.42625" lon="0.03076">
        <ele>1101.5</ele>
        <time>2016-07-31T08:32:52Z</time>
      </trkpt>
      <trkpt lat="42.42627" lon="0.03083">
        <ele>1100.9</ele>
        <time>2016-07-31T08:32:53Z</time>
      </trkpt>
      <trkpt lat="42.42629" lon="0.0309">
        <ele>1100.3</ele>
        <time>2016-07-31T08:32:54Z</time>
      </trkpt>
      <trkpt lat="42.42631" lon="0.03097">
        <ele>1099.8</ele>
        <time>2016-07-31T08:32:55Z</time>
      </trkpt>
      <trkpt lat="42.42633" lon="0.03103">
        <ele>1099.4</ele>
        <time>2016-07-31T08:32:56Z</time>
      </trkpt>
      <trkpt lat="42.42635" lon="0.0311">
        <ele>1099</ele>
        <time>2016-07-31T08:32:57Z</time>
      </trkpt>
      <trkpt lat="42.42637" lon="0.03116">
        <ele>1098.6</ele>
        <time>2016-07-31T08:32:58Z</time>
      </trkpt>
      <trkpt lat="42.42639" lon="0.03122">
        <ele>1098.3</ele>
        <time>2016-07-31T08:32:59Z</time>
      </trkpt>
      <trkpt lat="42.42641" lon="0.03128">
        <ele>1097.9</ele>
        <time>2016-07-31T08:33:00Z</time>
      </trkpt>
      <trkpt lat="42.42644" lon="0.03135">
        <ele>1097.5</ele>
        <time>2016-07-31T08:33:01Z</time>
      </trkpt>
      <trkpt lat="42.42646" lon="0.03141">
        <ele>1097</ele>
        <time>2016-07-31T08:33:02Z</time>
      </trkpt>
      <trkpt lat="42.42648" lon="0.03147">
        <ele>1096.7</ele>
        <time>2016-07-31T08:33:03Z</time>
      </trkpt>
      <trkpt lat="42.42651" lon="0.03153">
        <ele>1096.4</ele>
        <time>2016-07-31T08:33:04Z</time>
      </trkpt>
      <trkpt lat="42.42653" lon="0.03158">
        <ele>1096.1</ele>
        <time>2016-07-31T08:33:05Z</time>
      </trkpt>
      <trkpt lat="42.42655" lon="0.03164">
        <ele>1095.8</ele>
        <time>2016-07-31T08:33:06Z</time>
      </trkpt>
      <trkpt lat="42.42657" lon="0.03169">
        <ele>1095.6</ele>
        <time>2016-07-31T08:33:07Z</time>
      </trkpt>
      <trkpt lat="42.4266" lon="0.03174">
        <ele>1095.5</ele>
        <time>2016-07-31T08:33:08Z</time>
      </trkpt>
      <trkpt lat="42.42664" lon="0.03176">
        <ele>1095.6</ele>
        <time>2016-07-31T08:33:09Z</time>
      </trkpt>
      <trkpt lat="42.42669" lon="0.03178">
        <ele>1095.8</ele>
        <time>2016-07-31T08:33:10Z</time>
      </trkpt>
      <trkpt lat="42.42674" lon="0.03179">
        <ele>1096</ele>
        <time>2016-07-31T08:33:11Z</time>
      </trkpt>
      <trkpt lat="42.42678" lon="0.03181">
        <ele>1096.2</ele>
        <time>2016-07-31T08:33:12Z</time>
      </trkpt>
      <trkpt lat="42.42682" lon="0.03184">
        <ele>1096.4</ele>
        <time>2016-07-31T08:33:13Z</time>
      </trkpt>
      <trkpt lat="42.42687" lon="0.03185">
        <ele>1096.7</ele>
        <time>2016-07-31T08:33:14Z</time>
      </trkpt>
      <trkpt lat="42.42691" lon="0.03187">
        <ele>1096.9</ele>
        <time>2016-07-31T08:33:15Z</time>
      </trkpt>
      <trkpt lat="42.42695" lon="0.03189">
        <ele>1097.2</ele>
        <time>2016-07-31T08:33:16Z</time>
      </trkpt>
      <trkpt lat="42.427" lon="0.03191">
        <ele>1097.5</ele>
        <time>2016-07-31T08:33:17Z</time>
      </trkpt>
      <trkpt lat="42.42704" lon="0.03193">
        <ele>1097.9</ele>
        <time>2016-07-31T08:33:18Z</time>
      </trkpt>
      <trkpt lat="42.42709" lon="0.03196">
        <ele>1098.1</ele>
        <time>2016-07-31T08:33:19Z</time>
      </trkpt>
      <trkpt lat="42.42713" lon="0.03198">
        <ele>1097.8</ele>
        <time>2016-07-31T08:33:20Z</time>
      </trkpt>
      <trkpt lat="42.42717" lon="0.03202">
        <ele>1097.5</ele>
        <time>2016-07-31T08:33:21Z</time>
      </trkpt>
      <trkpt lat="42.42721" lon="0.03206">
        <ele>1097.4</ele>
        <time>2016-07-31T08:33:22Z</time>
      </trkpt>
      <trkpt lat="42.42725" lon="0.0321">
        <ele>1097</ele>
        <time>2016-07-31T08:33:23Z</time>
      </trkpt>
      <trkpt lat="42.42729" lon="0.03215">
        <ele>1096.4</ele>
        <time>2016-07-31T08:33:24Z</time>
      </trkpt>
      <trkpt lat="42.42734" lon="0.03219">
        <ele>1095.8</ele>
        <time>2016-07-31T08:33:25Z</time>
      </trkpt>
      <trkpt lat="42.42738" lon="0.03224">
        <ele>1095.2</ele>
        <time>2016-07-31T08:33:26Z</time>
      </trkpt>
      <trkpt lat="42.42743" lon="0.03229">
        <ele>1094.6</ele>
        <time>2016-07-31T08:33:27Z</time>
      </trkpt>
      <trkpt lat="42.42748" lon="0.03234">
        <ele>1093.9</ele>
        <time>2016-07-31T08:33:28Z</time>
      </trkpt>
      <trkpt lat="42.42752" lon="0.03239">
        <ele>1093.3</ele>
        <time>2016-07-31T08:33:29Z</time>
      </trkpt>
      <trkpt lat="42.42757" lon="0.03243">
        <ele>1092.8</ele>
        <time>2016-07-31T08:33:30Z</time>
      </trkpt>
      <trkpt lat="42.42761" lon="0.03246">
        <ele>1092.4</ele>
        <time>2016-07-31T08:33:31Z</time>
      </trkpt>
      <trkpt lat="42.42765" lon="0.03248">
        <ele>1092.2</ele>
        <time>2016-07-31T08:33:32Z</time>
      </trkpt>
      <trkpt lat="42.42768" lon="0.03248">
        <ele>1092</ele>
        <time>2016-07-31T08:33:33Z</time>
      </trkpt>
      <trkpt lat="42.42772" lon="0.03248">
        <ele>1091.9</ele>
        <time>2016-07-31T08:33:34Z</time>
      </trkpt>
      <trkpt lat="42.42775" lon="0.03248">
        <ele>1091.8</ele>
        <time>2016-07-31T08:33:35Z</time>
      </trkpt>
      <trkpt lat="42.42778" lon="0.03253">
        <ele>1091.3</ele>
        <time>2016-07-31T08:33:37Z</time>
      </trkpt>
      <trkpt lat="42.42779" lon="0.03258">
        <ele>1090.9</ele>
        <time>2016-07-31T08:33:38Z</time>
      </trkpt>
      <trkpt lat="42.4278" lon="0.03263">
        <ele>1090.4</ele>
        <time>2016-07-31T08:33:39Z</time>
      </trkpt>
      <trkpt lat="42.42781" lon="0.03268">
        <ele>1090</ele>
        <time>2016-07-31T08:33:40Z</time>
      </trkpt>
      <trkpt lat="42.42782" lon="0.03273">
        <ele>1089.7</ele>
        <time>2016-07-31T08:33:41Z</time>
      </trkpt>
      <trkpt lat="42.42783" lon="0.03276">
        <ele>1089.4</ele>
        <time>2016-07-31T08:33:42Z</time>
      </trkpt>
      <trkpt lat="42.42785" lon="0.03279">
        <ele>1089.1</ele>
        <time>2016-07-31T08:33:43Z</time>
      </trkpt>
      <trkpt lat="42.42788" lon="0.03281">
        <ele>1088.9</ele>
        <time>2016-07-31T08:33:44Z</time>
      </trkpt>
      <trkpt lat="42.4279" lon="0.03284">
        <ele>1088.6</ele>
        <time>2016-07-31T08:33:45Z</time>
      </trkpt>
      <trkpt lat="42.42791" lon="0.03291">
        <ele>1088.1</ele>
        <time>2016-07-31T08:33:47Z</time>
      </trkpt>
      <trkpt lat="42.4279" lon="0.03297">
        <ele>1087.4</ele>
        <time>2016-07-31T08:33:49Z</time>
      </trkpt>
      <trkpt lat="42.4279" lon="0.03303">
        <ele>1086.6</ele>
        <time>2016-07-31T08:33:51Z</time>
      </trkpt>
      <trkpt lat="42.42791" lon="0.03308">
        <ele>1086</ele>
        <time>2016-07-31T08:33:53Z</time>
      </trkpt>
      <trkpt lat="42.42791" lon="0.03317">
        <ele>1085</ele>
        <time>2016-07-31T08:35:55Z</time>
      </trkpt>
      <trkpt lat="42.42791" lon="0.03323">
        <ele>1084.3</ele>
        <time>2016-07-31T08:35:57Z</time>
      </trkpt>
      <trkpt lat="42.42791" lon="0.0333">
        <ele>1083.5</ele>
        <time>2016-07-31T08:35:59Z</time>
      </trkpt>
      <trkpt lat="42.42794" lon="0.03335">
        <ele>1082.7</ele>
        <time>2016-07-31T08:36:01Z</time>
      </trkpt>
      <trkpt lat="42.42796" lon="0.03338">
        <ele>1082.3</ele>
        <time>2016-07-31T08:36:02Z</time>
      </trkpt>
      <trkpt lat="42.42798" lon="0.0334">
        <ele>1081.9</ele>
        <time>2016-07-31T08:36:03Z</time>
      </trkpt>
      <trkpt lat="42.428" lon="0.03343">
        <ele>1081.5</ele>
        <time>2016-07-31T08:36:04Z</time>
      </trkpt>
      <trkpt lat="42.42802" lon="0.03349">
        <ele>1080.6</ele>
        <time>2016-07-31T08:36:06Z</time>
      </trkpt>
      <trkpt lat="42.42806" lon="0.03354">
        <ele>1080</ele>
        <time>2016-07-31T08:36:08Z</time>
      </trkpt>
      <trkpt lat="42.42809" lon="0.03355">
        <ele>1079.7</ele>
        <time>2016-07-31T08:36:09Z</time>
      </trkpt>
      <trkpt lat="42.42812" lon="0.03356">
        <ele>1079.4</ele>
        <time>2016-07-31T08:36:10Z</time>
      </trkpt>
      <trkpt lat="42.42814" lon="0.03358">
        <ele>1079.1</ele>
        <time>2016-07-31T08:36:11Z</time>
      </trkpt>
      <trkpt lat="42.42817" lon="0.0336">
        <ele>1078.7</ele>
        <time>2016-07-31T08:36:12Z</time>
      </trkpt>
      <trkpt lat="42.4282" lon="0.03363">
        <ele>1078.3</ele>
        <time>2016-07-31T08:36:13Z</time>
      </trkpt>
      <trkpt lat="42.42823" lon="0.03366">
        <ele>1077.9</ele>
        <time>2016-07-31T08:36:14Z</time>
      </trkpt>
      <trkpt lat="42.42825" lon="0.03369">
        <ele>1077.4</ele>
        <time>2016-07-31T08:36:15Z</time>
      </trkpt>
      <trkpt lat="42.42828" lon="0.03372">
        <ele>1077</ele>
        <time>2016-07-31T08:36:16Z</time>
      </trkpt>
      <trkpt lat="42.42831" lon="0.03376">
        <ele>1076.5</ele>
        <time>2016-07-31T08:36:17Z</time>
      </trkpt>
      <trkpt lat="42.42833" lon="0.0338">
        <ele>1075.8</ele>
        <time>2016-07-31T08:36:18Z</time>
      </trkpt>
      <trkpt lat="42.42835" lon="0.03384">
        <ele>1075</ele>
        <time>2016-07-31T08:36:19Z</time>
      </trkpt>
      <trkpt lat="42.42837" lon="0.03389">
        <ele>1074.2</ele>
        <time>2016-07-31T08:36:20Z</time>
      </trkpt>
      <trkpt lat="42.42838" lon="0.03394">
        <ele>1073.4</ele>
        <time>2016-07-31T08:36:21Z</time>
      </trkpt>
      <trkpt lat="42.4284" lon="0.03399">
        <ele>1072.7</ele>
        <time>2016-07-31T08:36:22Z</time>
      </trkpt>
      <trkpt lat="42.42841" lon="0.03403">
        <ele>1072.1</ele>
        <time>2016-07-31T08:36:23Z</time>
      </trkpt>
      <trkpt lat="42.42843" lon="0.03408">
        <ele>1071.4</ele>
        <time>2016-07-31T08:36:24Z</time>
      </trkpt>
      <trkpt lat="42.42845" lon="0.03413">
        <ele>1070.7</ele>
        <time>2016-07-31T08:36:25Z</time>
      </trkpt>
      <trkpt lat="42.42847" lon="0.03418">
        <ele>1070</ele>
        <time>2016-07-31T08:36:26Z</time>
      </trkpt>
      <trkpt lat="42.42848" lon="0.03421">
        <ele>1069.5</ele>
        <time>2016-07-31T08:36:27Z</time>
      </trkpt>
      <trkpt lat="42.4285" lon="0.03424">
        <ele>1069.2</ele>
        <time>2016-07-31T08:36:28Z</time>
      </trkpt>
      <trkpt lat="42.42852" lon="0.03427">
        <ele>1068.8</ele>
        <time>2016-07-31T08:36:29Z</time>
      </trkpt>
      <trkpt lat="42.42854" lon="0.03431">
        <ele>1068.4</ele>
        <time>2016-07-31T08:36:30Z</time>
      </trkpt>
      <trkpt lat="42.42856" lon="0.03434">
        <ele>1068</ele>
        <time>2016-07-31T08:36:31Z</time>
      </trkpt>
      <trkpt lat="42.42859" lon="0.03439">
        <ele>1067.4</ele>
        <time>2016-07-31T08:36:33Z</time>
      </trkpt>
      <trkpt lat="42.42859" lon="0.03445">
        <ele>1066.7</ele>
        <time>2016-07-31T08:36:35Z</time>
      </trkpt>
      <trkpt lat="42.42861" lon="0.03451">
        <ele>1066.1</ele>
        <time>2016-07-31T08:36:37Z</time>
      </trkpt>
      <trkpt lat="42.42863" lon="0.03457">
        <ele>1065.4</ele>
        <time>2016-07-31T08:36:39Z</time>
      </trkpt>
      <trkpt lat="42.42866" lon="0.03463">
        <ele>1065</ele>
        <time>2016-07-31T08:36:41Z</time>
      </trkpt>
      <trkpt lat="42.42869" lon="0.03468">
        <ele>1064.6</ele>
        <time>2016-07-31T08:36:43Z</time>
      </trkpt>
      <trkpt lat="42.42871" lon="0.03471">
        <ele>1064.4</ele>
        <time>2016-07-31T08:36:44Z</time>
      </trkpt>
      <trkpt lat="42.42872" lon="0.03475">
        <ele>1064.2</ele>
        <time>2016-07-31T08:36:45Z</time>
      </trkpt>
      <trkpt lat="42.42875" lon="0.03481">
        <ele>1063.8</ele>
        <time>2016-07-31T08:36:47Z</time>
      </trkpt>
      <trkpt lat="42.42876" lon="0.03485">
        <ele>1063.3</ele>
        <time>2016-07-31T08:36:48Z</time>
      </trkpt>
      <trkpt lat="42.42876" lon="0.03489">
        <ele>1062.9</ele>
        <time>2016-07-31T08:36:49Z</time>
      </trkpt>
      <trkpt lat="42.42875" lon="0.03494">
        <ele>1062.6</ele>
        <time>2016-07-31T08:36:50Z</time>
      </trkpt>
      <trkpt lat="42.42874" lon="0.03498">
        <ele>1062.1</ele>
        <time>2016-07-31T08:36:51Z</time>
      </trkpt>
      <trkpt lat="42.42873" lon="0.03502">
        <ele>1061.6</ele>
        <time>2016-07-31T08:36:52Z</time>
      </trkpt>
      <trkpt lat="42.42873" lon="0.03506">
        <ele>1061.3</ele>
        <time>2016-07-31T08:36:53Z</time>
      </trkpt>
      <trkpt lat="42.42875" lon="0.0351">
        <ele>1061</ele>
        <time>2016-07-31T08:36:54Z</time>
      </trkpt>
      <trkpt lat="42.42876" lon="0.03514">
        <ele>1060.5</ele>
        <time>2016-07-31T08:36:55Z</time>
      </trkpt>
      <trkpt lat="42.42877" lon="0.03519">
        <ele>1059.9</ele>
        <time>2016-07-31T08:36:56Z</time>
      </trkpt>
      <trkpt lat="42.42876" lon="0.03524">
        <ele>1059.5</ele>
        <time>2016-07-31T08:36:57Z</time>
      </trkpt>
      <trkpt lat="42.42875" lon="0.03529">
        <ele>1059.2</ele>
        <time>2016-07-31T08:36:58Z</time>
      </trkpt>
      <trkpt lat="42.42874" lon="0.03534">
        <ele>1058.6</ele>
        <time>2016-07-31T08:36:59Z</time>
      </trkpt>
      <trkpt lat="42.42872" lon="0.03539">
        <ele>1057.9</ele>
        <time>2016-07-31T08:37:00Z</time>
      </trkpt>
      <trkpt lat="42.42871" lon="0.03544">
        <ele>1057.2</ele>
        <time>2016-07-31T08:37:01Z</time>
      </trkpt>
      <trkpt lat="42.42869" lon="0.03549">
        <ele>1056.6</ele>
        <time>2016-07-31T08:37:02Z</time>
      </trkpt>
      <trkpt lat="42.42868" lon="0.03554">
        <ele>1056.2</ele>
        <time>2016-07-31T08:37:03Z</time>
      </trkpt>
      <trkpt lat="42.42869" lon="0.03559">
        <ele>1055.8</ele>
        <time>2016-07-31T08:37:04Z</time>
      </trkpt>
      <trkpt lat="42.4287" lon="0.03564">
        <ele>1055.7</ele>
        <time>2016-07-31T08:37:05Z</time>
      </trkpt>
      <trkpt lat="42.42873" lon="0.03569">
        <ele>1055.7</ele>
        <time>2016-07-31T08:37:06Z</time>
      </trkpt>
      <trkpt lat="42.42876" lon="0.03575">
        <ele>1055.6</ele>
        <time>2016-07-31T08:37:07Z</time>
      </trkpt>
      <trkpt lat="42.42879" lon="0.0358">
        <ele>1054.9</ele>
        <time>2016-07-31T08:37:08Z</time>
      </trkpt>
      <trkpt lat="42.42882" lon="0.03585">
        <ele>1054.2</ele>
        <time>2016-07-31T08:37:09Z</time>
      </trkpt>
      <trkpt lat="42.42885" lon="0.03591">
        <ele>1053.6</ele>
        <time>2016-07-31T08:37:10Z</time>
      </trkpt>
      <trkpt lat="42.42888" lon="0.03596">
        <ele>1053</ele>
        <time>2016-07-31T08:37:11Z</time>
      </trkpt>
      <trkpt lat="42.42892" lon="0.03602">
        <ele>1052.5</ele>
        <time>2016-07-31T08:37:12Z</time>
      </trkpt>
      <trkpt lat="42.42895" lon="0.03608">
        <ele>1051.9</ele>
        <time>2016-07-31T08:37:13Z</time>
      </trkpt>
      <trkpt lat="42.42898" lon="0.03614">
        <ele>1051.4</ele>
        <time>2016-07-31T08:37:14Z</time>
      </trkpt>
      <trkpt lat="42.42902" lon="0.03619">
        <ele>1051</ele>
        <time>2016-07-31T08:37:15Z</time>
      </trkpt>
      <trkpt lat="42.42905" lon="0.03625">
        <ele>1050.6</ele>
        <time>2016-07-31T08:37:16Z</time>
      </trkpt>
      <trkpt lat="42.42908" lon="0.03631">
        <ele>1050.1</ele>
        <time>2016-07-31T08:37:17Z</time>
      </trkpt>
      <trkpt lat="42.42911" lon="0.03636">
        <ele>1049.6</ele>
        <time>2016-07-31T08:37:18Z</time>
      </trkpt>
      <trkpt lat="42.42914" lon="0.03642">
        <ele>1049.2</ele>
        <time>2016-07-31T08:37:19Z</time>
      </trkpt>
      <trkpt lat="42.42917" lon="0.03648">
        <ele>1048.8</ele>
        <time>2016-07-31T08:37:20Z</time>
      </trkpt>
      <trkpt lat="42.4292" lon="0.03652">
        <ele>1048.4</ele>
        <time>2016-07-31T08:37:21Z</time>
      </trkpt>
      <trkpt lat="42.42921" lon="0.03656">
        <ele>1048.2</ele>
        <time>2016-07-31T08:37:22Z</time>
      </trkpt>
      <trkpt lat="42.42923" lon="0.03659">
        <ele>1047.9</ele>
        <time>2016-07-31T08:37:24Z</time>
      </trkpt>
      <trkpt lat="42.42926" lon="0.03661">
        <ele>1047.7</ele>
        <time>2016-07-31T08:37:27Z</time>
      </trkpt>
      <trkpt lat="42.42929" lon="0.03663">
        <ele>1047.6</ele>
        <time>2016-07-31T08:37:29Z</time>
      </trkpt>
      <trkpt lat="42.42931" lon="0.03667">
        <ele>1047.3</ele>
        <time>2016-07-31T08:37:31Z</time>
      </trkpt>
      <trkpt lat="42.42933" lon="0.0367">
        <ele>1047.1</ele>
        <time>2016-07-31T08:37:33Z</time>
      </trkpt>
      <trkpt lat="42.42936" lon="0.03674">
        <ele>1046.8</ele>
        <time>2016-07-31T08:37:35Z</time>
      </trkpt>
      <trkpt lat="42.42939" lon="0.03677">
        <ele>1046.7</ele>
        <time>2016-07-31T08:37:36Z</time>
      </trkpt>
      <trkpt lat="42.42941" lon="0.03679">
        <ele>1046.5</ele>
        <time>2016-07-31T08:37:37Z</time>
      </trkpt>
      <trkpt lat="42.42943" lon="0.03682">
        <ele>1046.3</ele>
        <time>2016-07-31T08:37:38Z</time>
      </trkpt>
      <trkpt lat="42.42946" lon="0.03687">
        <ele>1046</ele>
        <time>2016-07-31T08:37:40Z</time>
      </trkpt>
      <trkpt lat="42.42947" lon="0.03691">
        <ele>1045.9</ele>
        <time>2016-07-31T08:37:41Z</time>
      </trkpt>
      <trkpt lat="42.42948" lon="0.03694">
        <ele>1045.7</ele>
        <time>2016-07-31T08:37:42Z</time>
      </trkpt>
      <trkpt lat="42.42948" lon="0.03698">
        <ele>1045.5</ele>
        <time>2016-07-31T08:37:43Z</time>
      </trkpt>
      <trkpt lat="42.42948" lon="0.03702">
        <ele>1045.4</ele>
        <time>2016-07-31T08:37:44Z</time>
      </trkpt>
      <trkpt lat="42.42947" lon="0.03706">
        <ele>1045.2</ele>
        <time>2016-07-31T08:37:45Z</time>
      </trkpt>
      <trkpt lat="42.42945" lon="0.03712">
        <ele>1044.9</ele>
        <time>2016-07-31T08:37:47Z</time>
      </trkpt>
      <trkpt lat="42.42943" lon="0.03715">
        <ele>1044.8</ele>
        <time>2016-07-31T08:37:48Z</time>
      </trkpt>
      <trkpt lat="42.42939" lon="0.03719">
        <ele>1044.6</ele>
        <time>2016-07-31T08:37:50Z</time>
      </trkpt>
      <trkpt lat="42.42937" lon="0.03722">
        <ele>1044.5</ele>
        <time>2016-07-31T08:37:51Z</time>
      </trkpt>
      <trkpt lat="42.42935" lon="0.03725">
        <ele>1044.2</ele>
        <time>2016-07-31T08:37:52Z</time>
      </trkpt>
      <trkpt lat="42.42933" lon="0.0373">
        <ele>1044</ele>
        <time>2016-07-31T08:37:53Z</time>
      </trkpt>
      <trkpt lat="42.42931" lon="0.03734">
        <ele>1043.7</ele>
        <time>2016-07-31T08:37:54Z</time>
      </trkpt>
      <trkpt lat="42.42929" lon="0.0374">
        <ele>1043.3</ele>
        <time>2016-07-31T08:37:55Z</time>
      </trkpt>
      <trkpt lat="42.42926" lon="0.03745">
        <ele>1043</ele>
        <time>2016-07-31T08:37:56Z</time>
      </trkpt>
      <trkpt lat="42.42923" lon="0.03749">
        <ele>1042.6</ele>
        <time>2016-07-31T08:37:57Z</time>
      </trkpt>
      <trkpt lat="42.42921" lon="0.03752">
        <ele>1042.4</ele>
        <time>2016-07-31T08:37:58Z</time>
      </trkpt>
      <trkpt lat="42.42918" lon="0.03756">
        <ele>1042.1</ele>
        <time>2016-07-31T08:38:00Z</time>
      </trkpt>
      <trkpt lat="42.42918" lon="0.03762">
        <ele>1041.7</ele>
        <time>2016-07-31T08:38:02Z</time>
      </trkpt>
      <trkpt lat="42.42917" lon="0.03768">
        <ele>1041.2</ele>
        <time>2016-07-31T08:38:03Z</time>
      </trkpt>
      <trkpt lat="42.42915" lon="0.03774">
        <ele>1040.7</ele>
        <time>2016-07-31T08:38:04Z</time>
      </trkpt>
      <trkpt lat="42.42913" lon="0.03781">
        <ele>1040.1</ele>
        <time>2016-07-31T08:38:05Z</time>
      </trkpt>
      <trkpt lat="42.42911" lon="0.03788">
        <ele>1039.5</ele>
        <time>2016-07-31T08:38:06Z</time>
      </trkpt>
      <trkpt lat="42.42908" lon="0.03795">
        <ele>1038.9</ele>
        <time>2016-07-31T08:38:07Z</time>
      </trkpt>
      <trkpt lat="42.42907" lon="0.03801">
        <ele>1038.4</ele>
        <time>2016-07-31T08:38:08Z</time>
      </trkpt>
      <trkpt lat="42.42907" lon="0.03806">
        <ele>1037.9</ele>
        <time>2016-07-31T08:38:09Z</time>
      </trkpt>
      <trkpt lat="42.42909" lon="0.0381">
        <ele>1037.6</ele>
        <time>2016-07-31T08:38:10Z</time>
      </trkpt>
      <trkpt lat="42.42912" lon="0.03815">
        <ele>1037.3</ele>
        <time>2016-07-31T08:38:11Z</time>
      </trkpt>
      <trkpt lat="42.42914" lon="0.03819">
        <ele>1037.1</ele>
        <time>2016-07-31T08:38:12Z</time>
      </trkpt>
      <trkpt lat="42.42917" lon="0.03825">
        <ele>1036.7</ele>
        <time>2016-07-31T08:38:13Z</time>
      </trkpt>
      <trkpt lat="42.4292" lon="0.03831">
        <ele>1036.4</ele>
        <time>2016-07-31T08:38:14Z</time>
      </trkpt>
      <trkpt lat="42.42921" lon="0.03838">
        <ele>1035.9</ele>
        <time>2016-07-31T08:38:15Z</time>
      </trkpt>
      <trkpt lat="42.42922" lon="0.03845">
        <ele>1035.4</ele>
        <time>2016-07-31T08:38:16Z</time>
      </trkpt>
      <trkpt lat="42.42923" lon="0.03852">
        <ele>1034.8</ele>
        <time>2016-07-31T08:38:17Z</time>
      </trkpt>
      <trkpt lat="42.42923" lon="0.0386">
        <ele>1034.2</ele>
        <time>2016-07-31T08:38:18Z</time>
      </trkpt>
      <trkpt lat="42.42922" lon="0.03867">
        <ele>1033.6</ele>
        <time>2016-07-31T08:38:19Z</time>
      </trkpt>
      <trkpt lat="42.42922" lon="0.03874">
        <ele>1033</ele>
        <time>2016-07-31T08:38:20Z</time>
      </trkpt>
      <trkpt lat="42.42923" lon="0.03881">
        <ele>1033.9</ele>
        <time>2016-07-31T08:38:21Z</time>
      </trkpt>
      <trkpt lat="42.42926" lon="0.03887">
        <ele>1034.9</ele>
        <time>2016-07-31T08:38:22Z</time>
      </trkpt>
      <trkpt lat="42.42929" lon="0.03893">
        <ele>1035.9</ele>
        <time>2016-07-31T08:38:23Z</time>
      </trkpt>
      <trkpt lat="42.42933" lon="0.03897">
        <ele>1036.9</ele>
        <time>2016-07-31T08:38:24Z</time>
      </trkpt>
      <trkpt lat="42.42937" lon="0.03902">
        <ele>1037.8</ele>
        <time>2016-07-31T08:38:25Z</time>
      </trkpt>
      <trkpt lat="42.42941" lon="0.03906">
        <ele>1038.8</ele>
        <time>2016-07-31T08:38:26Z</time>
      </trkpt>
      <trkpt lat="42.42945" lon="0.03911">
        <ele>1039.8</ele>
        <time>2016-07-31T08:38:27Z</time>
      </trkpt>
      <trkpt lat="42.42948" lon="0.03916">
        <ele>1040.8</ele>
        <time>2016-07-31T08:38:28Z</time>
      </trkpt>
      <trkpt lat="42.42952" lon="0.03921">
        <ele>1041.9</ele>
        <time>2016-07-31T08:38:29Z</time>
      </trkpt>
      <trkpt lat="42.42955" lon="0.03927">
        <ele>1043</ele>
        <time>2016-07-31T08:38:30Z</time>
      </trkpt>
      <trkpt lat="42.42958" lon="0.03932">
        <ele>1044.1</ele>
        <time>2016-07-31T08:38:31Z</time>
      </trkpt>
      <trkpt lat="42.42961" lon="0.03937">
        <ele>1044.1</ele>
        <time>2016-07-31T08:38:32Z</time>
      </trkpt>
      <trkpt lat="42.42964" lon="0.03942">
        <ele>1043.9</ele>
        <time>2016-07-31T08:38:33Z</time>
      </trkpt>
      <trkpt lat="42.42967" lon="0.03946">
        <ele>1043.5</ele>
        <time>2016-07-31T08:38:34Z</time>
      </trkpt>
      <trkpt lat="42.4297" lon="0.03951">
        <ele>1043.2</ele>
        <time>2016-07-31T08:38:35Z</time>
      </trkpt>
      <trkpt lat="42.42973" lon="0.03955">
        <ele>1042.8</ele>
        <time>2016-07-31T08:38:36Z</time>
      </trkpt>
      <trkpt lat="42.42976" lon="0.03958">
        <ele>1042.4</ele>
        <time>2016-07-31T08:38:37Z</time>
      </trkpt>
      <trkpt lat="42.42978" lon="0.03961">
        <ele>1042.2</ele>
        <time>2016-07-31T08:38:38Z</time>
      </trkpt>
      <trkpt lat="42.42981" lon="0.03964">
        <ele>1041.8</ele>
        <time>2016-07-31T08:38:40Z</time>
      </trkpt>
      <trkpt lat="42.42984" lon="0.03965">
        <ele>1041.2</ele>
        <time>2016-07-31T08:38:42Z</time>
      </trkpt>
      <trkpt lat="42.42986" lon="0.03966">
        <ele>1040.5</ele>
        <time>2016-07-31T08:38:44Z</time>
      </trkpt>
      <trkpt lat="42.42991" lon="0.03968">
        <ele>1039.6</ele>
        <time>2016-07-31T08:38:46Z</time>
      </trkpt>
      <trkpt lat="42.42993" lon="0.03969">
        <ele>1039</ele>
        <time>2016-07-31T08:38:47Z</time>
      </trkpt>
      <trkpt lat="42.42998" lon="0.0397">
        <ele>1037.6</ele>
        <time>2016-07-31T08:38:49Z</time>
      </trkpt>
      <trkpt lat="42.43001" lon="0.03971">
        <ele>1036.7</ele>
        <time>2016-07-31T08:38:50Z</time>
      </trkpt>
      <trkpt lat="42.43005" lon="0.03972">
        <ele>1035.8</ele>
        <time>2016-07-31T08:38:51Z</time>
      </trkpt>
      <trkpt lat="42.43008" lon="0.03974">
        <ele>1035.2</ele>
        <time>2016-07-31T08:38:52Z</time>
      </trkpt>
      <trkpt lat="42.43011" lon="0.03976">
        <ele>1034.7</ele>
        <time>2016-07-31T08:38:53Z</time>
      </trkpt>
      <trkpt lat="42.43015" lon="0.03979">
        <ele>1034.2</ele>
        <time>2016-07-31T08:38:54Z</time>
      </trkpt>
      <trkpt lat="42.43018" lon="0.03983">
        <ele>1033.9</ele>
        <time>2016-07-31T08:38:55Z</time>
      </trkpt>
      <trkpt lat="42.43022" lon="0.03987">
        <ele>1033.4</ele>
        <time>2016-07-31T08:38:56Z</time>
      </trkpt>
      <trkpt lat="42.43026" lon="0.03991">
        <ele>1033</ele>
        <time>2016-07-31T08:38:57Z</time>
      </trkpt>
      <trkpt lat="42.43029" lon="0.03995">
        <ele>1032.8</ele>
        <time>2016-07-31T08:38:58Z</time>
      </trkpt>
      <trkpt lat="42.43032" lon="0.03999">
        <ele>1032.9</ele>
        <time>2016-07-31T08:38:59Z</time>
      </trkpt>
      <trkpt lat="42.43034" lon="0.04004">
        <ele>1033.2</ele>
        <time>2016-07-31T08:39:00Z</time>
      </trkpt>
      <trkpt lat="42.43036" lon="0.04007">
        <ele>1033.4</ele>
        <time>2016-07-31T08:39:01Z</time>
      </trkpt>
      <trkpt lat="42.4304" lon="0.04012">
        <ele>1032.9</ele>
        <time>2016-07-31T08:39:03Z</time>
      </trkpt>
      <trkpt lat="42.43045" lon="0.04015">
        <ele>1032</ele>
        <time>2016-07-31T08:39:05Z</time>
      </trkpt>
      <trkpt lat="42.43049" lon="0.04017">
        <ele>1031.3</ele>
        <time>2016-07-31T08:39:06Z</time>
      </trkpt>
      <trkpt lat="42.43053" lon="0.0402">
        <ele>1030.6</ele>
        <time>2016-07-31T08:39:07Z</time>
      </trkpt>
      <trkpt lat="42.43056" lon="0.04023">
        <ele>1030</ele>
        <time>2016-07-31T08:39:08Z</time>
      </trkpt>
      <trkpt lat="42.4306" lon="0.04028">
        <ele>1029.5</ele>
        <time>2016-07-31T08:39:09Z</time>
      </trkpt>
      <trkpt lat="42.43064" lon="0.04032">
        <ele>1029.2</ele>
        <time>2016-07-31T08:39:10Z</time>
      </trkpt>
      <trkpt lat="42.43066" lon="0.04036">
        <ele>1029.1</ele>
        <time>2016-07-31T08:39:11Z</time>
      </trkpt>
      <trkpt lat="42.43068" lon="0.04039">
        <ele>1029</ele>
        <time>2016-07-31T08:39:12Z</time>
      </trkpt>
      <trkpt lat="42.43071" lon="0.04044">
        <ele>1028.9</ele>
        <time>2016-07-31T08:39:14Z</time>
      </trkpt>
      <trkpt lat="42.43076" lon="0.04049">
        <ele>1028.7</ele>
        <time>2016-07-31T08:39:16Z</time>
      </trkpt>
      <trkpt lat="42.43078" lon="0.04053">
        <ele>1028.6</ele>
        <time>2016-07-31T08:39:17Z</time>
      </trkpt>
      <trkpt lat="42.43081" lon="0.04058">
        <ele>1028.9</ele>
        <time>2016-07-31T08:39:18Z</time>
      </trkpt>
      <trkpt lat="42.43083" lon="0.04063">
        <ele>1029.3</ele>
        <time>2016-07-31T08:39:19Z</time>
      </trkpt>
      <trkpt lat="42.43085" lon="0.04067">
        <ele>1029.5</ele>
        <time>2016-07-31T08:39:20Z</time>
      </trkpt>
      <trkpt lat="42.43088" lon="0.04072">
        <ele>1029.6</ele>
        <time>2016-07-31T08:39:21Z</time>
      </trkpt>
      <trkpt lat="42.43091" lon="0.04076">
        <ele>1029.6</ele>
        <time>2016-07-31T08:39:22Z</time>
      </trkpt>
      <trkpt lat="42.43094" lon="0.04082">
        <ele>1029.7</ele>
        <time>2016-07-31T08:39:23Z</time>
      </trkpt>
      <trkpt lat="42.43097" lon="0.04087">
        <ele>1029.9</ele>
        <time>2016-07-31T08:39:24Z</time>
      </trkpt>
      <trkpt lat="42.431" lon="0.04093">
        <ele>1030.1</ele>
        <time>2016-07-31T08:39:25Z</time>
      </trkpt>
      <trkpt lat="42.43103" lon="0.04099">
        <ele>1030.3</ele>
        <time>2016-07-31T08:39:26Z</time>
      </trkpt>
      <trkpt lat="42.43106" lon="0.04105">
        <ele>1030.6</ele>
        <time>2016-07-31T08:39:27Z</time>
      </trkpt>
      <trkpt lat="42.43109" lon="0.04111">
        <ele>1031</ele>
        <time>2016-07-31T08:39:28Z</time>
      </trkpt>
      <trkpt lat="42.43111" lon="0.04116">
        <ele>1031.3</ele>
        <time>2016-07-31T08:39:29Z</time>
      </trkpt>
      <trkpt lat="42.43114" lon="0.04122">
        <ele>1031.8</ele>
        <time>2016-07-31T08:39:30Z</time>
      </trkpt>
      <trkpt lat="42.43116" lon="0.04128">
        <ele>1032.2</ele>
        <time>2016-07-31T08:39:31Z</time>
      </trkpt>
      <trkpt lat="42.43117" lon="0.04133">
        <ele>1032.4</ele>
        <time>2016-07-31T08:39:32Z</time>
      </trkpt>
      <trkpt lat="42.4312" lon="0.04138">
        <ele>1032.3</ele>
        <time>2016-07-31T08:39:33Z</time>
      </trkpt>
      <trkpt lat="42.43123" lon="0.04142">
        <ele>1032.1</ele>
        <time>2016-07-31T08:39:34Z</time>
      </trkpt>
      <trkpt lat="42.43128" lon="0.04152">
        <ele>1031.6</ele>
        <time>2016-07-31T08:39:36Z</time>
      </trkpt>
      <trkpt lat="42.43131" lon="0.04156">
        <ele>1030.9</ele>
        <time>2016-07-31T08:39:37Z</time>
      </trkpt>
      <trkpt lat="42.43134" lon="0.0416">
        <ele>1030.1</ele>
        <time>2016-07-31T08:39:38Z</time>
      </trkpt>
      <trkpt lat="42.43138" lon="0.04164">
        <ele>1029.3</ele>
        <time>2016-07-31T08:39:39Z</time>
      </trkpt>
      <trkpt lat="42.43141" lon="0.04168">
        <ele>1028.5</ele>
        <time>2016-07-31T08:39:40Z</time>
      </trkpt>
      <trkpt lat="42.43143" lon="0.04172">
        <ele>1027.9</ele>
        <time>2016-07-31T08:39:41Z</time>
      </trkpt>
      <trkpt lat="42.43146" lon="0.04176">
        <ele>1027.3</ele>
        <time>2016-07-31T08:39:42Z</time>
      </trkpt>
      <trkpt lat="42.4315" lon="0.04179">
        <ele>1026.3</ele>
        <time>2016-07-31T08:39:43Z</time>
      </trkpt>
      <trkpt lat="42.43154" lon="0.04183">
        <ele>1025.2</ele>
        <time>2016-07-31T08:39:44Z</time>
      </trkpt>
      <trkpt lat="42.43157" lon="0.04185">
        <ele>1024.2</ele>
        <time>2016-07-31T08:39:45Z</time>
      </trkpt>
      <trkpt lat="42.43159" lon="0.04188">
        <ele>1023.4</ele>
        <time>2016-07-31T08:39:46Z</time>
      </trkpt>
      <trkpt lat="42.43162" lon="0.04191">
        <ele>1022.8</ele>
        <time>2016-07-31T08:39:47Z</time>
      </trkpt>
      <trkpt lat="42.43164" lon="0.04193">
        <ele>1022.1</ele>
        <time>2016-07-31T08:39:48Z</time>
      </trkpt>
      <trkpt lat="42.43167" lon="0.04197">
        <ele>1021.3</ele>
        <time>2016-07-31T08:39:49Z</time>
      </trkpt>
      <trkpt lat="42.4317" lon="0.042">
        <ele>1020.7</ele>
        <time>2016-07-31T08:39:50Z</time>
      </trkpt>
      <trkpt lat="42.43171" lon="0.04203">
        <ele>1020.3</ele>
        <time>2016-07-31T08:39:51Z</time>
      </trkpt>
      <trkpt lat="42.43173" lon="0.04206">
        <ele>1020.1</ele>
        <time>2016-07-31T08:39:52Z</time>
      </trkpt>
      <trkpt lat="42.43175" lon="0.04209">
        <ele>1019.6</ele>
        <time>2016-07-31T08:39:53Z</time>
      </trkpt>
      <trkpt lat="42.43178" lon="0.04212">
        <ele>1019.1</ele>
        <time>2016-07-31T08:39:54Z</time>
      </trkpt>
      <trkpt lat="42.43181" lon="0.04216">
        <ele>1018.4</ele>
        <time>2016-07-31T08:39:55Z</time>
      </trkpt>
      <trkpt lat="42.43187" lon="0.04224">
        <ele>1017.2</ele>
        <time>2016-07-31T08:39:57Z</time>
      </trkpt>
      <trkpt lat="42.4319" lon="0.04227">
        <ele>1016.4</ele>
        <time>2016-07-31T08:39:58Z</time>
      </trkpt>
      <trkpt lat="42.43193" lon="0.04231">
        <ele>1015.7</ele>
        <time>2016-07-31T08:39:59Z</time>
      </trkpt>
      <trkpt lat="42.43197" lon="0.04235">
        <ele>1014.8</ele>
        <time>2016-07-31T08:40:00Z</time>
      </trkpt>
      <trkpt lat="42.43201" lon="0.04239">
        <ele>1014.1</ele>
        <time>2016-07-31T08:40:01Z</time>
      </trkpt>
      <trkpt lat="42.43204" lon="0.04242">
        <ele>1013.4</ele>
        <time>2016-07-31T08:40:02Z</time>
      </trkpt>
      <trkpt lat="42.43207" lon="0.04245">
        <ele>1012.4</ele>
        <time>2016-07-31T08:40:03Z</time>
      </trkpt>
      <trkpt lat="42.43211" lon="0.04248">
        <ele>1011.3</ele>
        <time>2016-07-31T08:40:04Z</time>
      </trkpt>
      <trkpt lat="42.43214" lon="0.04251">
        <ele>1010.4</ele>
        <time>2016-07-31T08:40:05Z</time>
      </trkpt>
      <trkpt lat="42.43217" lon="0.04254">
        <ele>1009.6</ele>
        <time>2016-07-31T08:40:06Z</time>
      </trkpt>
      <trkpt lat="42.4322" lon="0.04256">
        <ele>1008.8</ele>
        <time>2016-07-31T08:40:07Z</time>
      </trkpt>
      <trkpt lat="42.43223" lon="0.04259">
        <ele>1008</ele>
        <time>2016-07-31T08:40:08Z</time>
      </trkpt>
      <trkpt lat="42.43227" lon="0.04263">
        <ele>1007.3</ele>
        <time>2016-07-31T08:40:09Z</time>
      </trkpt>
      <trkpt lat="42.4323" lon="0.04266">
        <ele>1006.8</ele>
        <time>2016-07-31T08:40:10Z</time>
      </trkpt>
      <trkpt lat="42.43232" lon="0.0427">
        <ele>1006.4</ele>
        <time>2016-07-31T08:40:11Z</time>
      </trkpt>
      <trkpt lat="42.43234" lon="0.04273">
        <ele>1006.1</ele>
        <time>2016-07-31T08:40:12Z</time>
      </trkpt>
      <trkpt lat="42.43238" lon="0.04276">
        <ele>1005.1</ele>
        <time>2016-07-31T08:40:14Z</time>
      </trkpt>
      <trkpt lat="42.43243" lon="0.04279">
        <ele>1003.6</ele>
        <time>2016-07-31T08:40:16Z</time>
      </trkpt>
      <trkpt lat="42.43246" lon="0.04281">
        <ele>1002.5</ele>
        <time>2016-07-31T08:40:17Z</time>
      </trkpt>
      <trkpt lat="42.4325" lon="0.04283">
        <ele>1001.1</ele>
        <time>2016-07-31T08:40:18Z</time>
      </trkpt>
      <trkpt lat="42.43254" lon="0.04286">
        <ele>999.8</ele>
        <time>2016-07-31T08:40:19Z</time>
      </trkpt>
      <trkpt lat="42.43257" lon="0.04288">
        <ele>998.9</ele>
        <time>2016-07-31T08:40:20Z</time>
      </trkpt>
      <trkpt lat="42.4326" lon="0.04291">
        <ele>998.1</ele>
        <time>2016-07-31T08:40:21Z</time>
      </trkpt>
      <trkpt lat="42.43263" lon="0.04294">
        <ele>997.7</ele>
        <time>2016-07-31T08:40:22Z</time>
      </trkpt>
      <trkpt lat="42.43265" lon="0.04297">
        <ele>997.4</ele>
        <time>2016-07-31T08:40:23Z</time>
      </trkpt>
      <trkpt lat="42.43268" lon="0.04299">
        <ele>997</ele>
        <time>2016-07-31T08:40:24Z</time>
      </trkpt>
      <trkpt lat="42.43271" lon="0.043">
        <ele>995.7</ele>
        <time>2016-07-31T08:40:26Z</time>
      </trkpt>
      <trkpt lat="42.43271" lon="0.04295">
        <ele>994.2</ele>
        <time>2016-07-31T08:40:28Z</time>
      </trkpt>
      <trkpt lat="42.4327" lon="0.04291">
        <ele>993.7</ele>
        <time>2016-07-31T08:40:29Z</time>
      </trkpt>
      <trkpt lat="42.43268" lon="0.04287">
        <ele>993.6</ele>
        <time>2016-07-31T08:40:30Z</time>
      </trkpt>
      <trkpt lat="42.43267" lon="0.04282">
        <ele>993.1</ele>
        <time>2016-07-31T08:40:31Z</time>
      </trkpt>
      <trkpt lat="42.43265" lon="0.04276">
        <ele>992.5</ele>
        <time>2016-07-31T08:40:32Z</time>
      </trkpt>
      <trkpt lat="42.43265" lon="0.04271">
        <ele>991.7</ele>
        <time>2016-07-31T08:40:33Z</time>
      </trkpt>
      <trkpt lat="42.43264" lon="0.04266">
        <ele>990.9</ele>
        <time>2016-07-31T08:40:34Z</time>
      </trkpt>
      <trkpt lat="42.43263" lon="0.04261">
        <ele>990.2</ele>
        <time>2016-07-31T08:40:35Z</time>
      </trkpt>
      <trkpt lat="42.43262" lon="0.04257">
        <ele>989.8</ele>
        <time>2016-07-31T08:40:36Z</time>
      </trkpt>
      <trkpt lat="42.4326" lon="0.04253">
        <ele>989.8</ele>
        <time>2016-07-31T08:40:37Z</time>
      </trkpt>
      <trkpt lat="42.43258" lon="0.0425">
        <ele>989.9</ele>
        <time>2016-07-31T08:40:38Z</time>
      </trkpt>
      <trkpt lat="42.43256" lon="0.04245">
        <ele>989.6</ele>
        <time>2016-07-31T08:40:39Z</time>
      </trkpt>
      <trkpt lat="42.43255" lon="0.04239">
        <ele>989.1</ele>
        <time>2016-07-31T08:40:40Z</time>
      </trkpt>
      <trkpt lat="42.43254" lon="0.04234">
        <ele>988.5</ele>
        <time>2016-07-31T08:40:41Z</time>
      </trkpt>
      <trkpt lat="42.43253" lon="0.0423">
        <ele>988</ele>
        <time>2016-07-31T08:40:42Z</time>
      </trkpt>
      <trkpt lat="42.43252" lon="0.04226">
        <ele>987.5</ele>
        <time>2016-07-31T08:40:43Z</time>
      </trkpt>
      <trkpt lat="42.43251" lon="0.04221">
        <ele>987</ele>
        <time>2016-07-31T08:40:44Z</time>
      </trkpt>
      <trkpt lat="42.4325" lon="0.04217">
        <ele>986.4</ele>
        <time>2016-07-31T08:40:45Z</time>
      </trkpt>
      <trkpt lat="42.43249" lon="0.04213">
        <ele>986.1</ele>
        <time>2016-07-31T08:40:46Z</time>
      </trkpt>
      <trkpt lat="42.43247" lon="0.04209">
        <ele>985.9</ele>
        <time>2016-07-31T08:40:47Z</time>
      </trkpt>
      <trkpt lat="42.43246" lon="0.04205">
        <ele>986</ele>
        <time>2016-07-31T08:40:48Z</time>
      </trkpt>
      <trkpt lat="42.43244" lon="0.042">
        <ele>986</ele>
        <time>2016-07-31T08:40:49Z</time>
      </trkpt>
      <trkpt lat="42.43243" lon="0.04195">
        <ele>985.5</ele>
        <time>2016-07-31T08:40:50Z</time>
      </trkpt>
      <trkpt lat="42.43243" lon="0.04189">
        <ele>985.2</ele>
        <time>2016-07-31T08:40:51Z</time>
      </trkpt>
      <trkpt lat="42.43242" lon="0.04185">
        <ele>985</ele>
        <time>2016-07-31T08:40:52Z</time>
      </trkpt>
      <trkpt lat="42.43239" lon="0.0418">
        <ele>985.1</ele>
        <time>2016-07-31T08:40:54Z</time>
      </trkpt>
      <trkpt lat="42.43237" lon="0.04175">
        <ele>985.5</ele>
        <time>2016-07-31T08:40:56Z</time>
      </trkpt>
      <trkpt lat="42.43237" lon="0.0417">
        <ele>984.8</ele>
        <time>2016-07-31T08:40:58Z</time>
      </trkpt>
      <trkpt lat="42.43239" lon="0.04165">
        <ele>983.3</ele>
        <time>2016-07-31T08:41:00Z</time>
      </trkpt>
      <trkpt lat="42.4324" lon="0.0416">
        <ele>982</ele>
        <time>2016-07-31T08:41:02Z</time>
      </trkpt>
      <trkpt lat="42.43239" lon="0.04152">
        <ele>981.3</ele>
        <time>2016-07-31T08:41:04Z</time>
      </trkpt>
      <trkpt lat="42.43239" lon="0.04146">
        <ele>980.4</ele>
        <time>2016-07-31T08:41:06Z</time>
      </trkpt>
      <trkpt lat="42.4324" lon="0.04139">
        <ele>978.6</ele>
        <time>2016-07-31T08:41:08Z</time>
      </trkpt>
      <trkpt lat="42.43243" lon="0.04136">
        <ele>977</ele>
        <time>2016-07-31T08:41:10Z</time>
      </trkpt>
      <trkpt lat="42.43247" lon="0.04135">
        <ele>975.1</ele>
        <time>2016-07-31T08:41:12Z</time>
      </trkpt>
      <trkpt lat="42.4325" lon="0.0413">
        <ele>973.1</ele>
        <time>2016-07-31T08:41:14Z</time>
      </trkpt>
      <trkpt lat="42.43251" lon="0.04126">
        <ele>972.2</ele>
        <time>2016-07-31T08:41:15Z</time>
      </trkpt>
      <trkpt lat="42.43252" lon="0.04122">
        <ele>971.7</ele>
        <time>2016-07-31T08:41:16Z</time>
      </trkpt>
      <trkpt lat="42.43254" lon="0.0412">
        <ele>970.5</ele>
        <time>2016-07-31T08:41:19Z</time>
      </trkpt>
      <trkpt lat="42.43258" lon="0.04122">
        <ele>969</ele>
        <time>2016-07-31T08:41:21Z</time>
      </trkpt>
      <trkpt lat="42.43261" lon="0.04123">
        <ele>967.9</ele>
        <time>2016-07-31T08:41:23Z</time>
      </trkpt>
      <trkpt lat="42.43265" lon="0.04125">
        <ele>966.1</ele>
        <time>2016-07-31T08:41:25Z</time>
      </trkpt>
      <trkpt lat="42.4327" lon="0.04125">
        <ele>964.1</ele>
        <time>2016-07-31T08:41:27Z</time>
      </trkpt>
      <trkpt lat="42.43273" lon="0.04126">
        <ele>963</ele>
        <time>2016-07-31T08:41:28Z</time>
      </trkpt>
      <trkpt lat="42.43277" lon="0.04128">
        <ele>961.6</ele>
        <time>2016-07-31T08:41:30Z</time>
      </trkpt>
      <trkpt lat="42.43279" lon="0.04131">
        <ele>961</ele>
        <time>2016-07-31T08:41:32Z</time>
      </trkpt>
      <trkpt lat="42.43281" lon="0.04135">
        <ele>960.7</ele>
        <time>2016-07-31T08:41:34Z</time>
      </trkpt>
      <trkpt lat="42.43283" lon="0.04142">
        <ele>960.7</ele>
        <time>2016-07-31T08:41:36Z</time>
      </trkpt>
      <trkpt lat="42.43285" lon="0.04146">
        <ele>960.4</ele>
        <time>2016-07-31T08:41:37Z</time>
      </trkpt>
      <trkpt lat="42.43286" lon="0.04149">
        <ele>960.2</ele>
        <time>2016-07-31T08:41:38Z</time>
      </trkpt>
      <trkpt lat="42.43288" lon="0.04153">
        <ele>960.1</ele>
        <time>2016-07-31T08:41:39Z</time>
      </trkpt>
      <trkpt lat="42.43289" lon="0.04158">
        <ele>960.1</ele>
        <time>2016-07-31T08:41:41Z</time>
      </trkpt>
      <trkpt lat="42.43291" lon="0.04163">
        <ele>960</ele>
        <time>2016-07-31T08:41:43Z</time>
      </trkpt>
      <trkpt lat="42.43291" lon="0.04169">
        <ele>960.5</ele>
        <time>2016-07-31T08:41:45Z</time>
      </trkpt>
      <trkpt lat="42.43291" lon="0.04173">
        <ele>961.3</ele>
        <time>2016-07-31T08:41:47Z</time>
      </trkpt>
      <trkpt lat="42.43291" lon="0.04178">
        <ele>961.5</ele>
        <time>2016-07-31T08:41:49Z</time>
      </trkpt>
      <trkpt lat="42.43295" lon="0.04184">
        <ele>961.1</ele>
        <time>2016-07-31T08:41:51Z</time>
      </trkpt>
      <trkpt lat="42.43298" lon="0.04188">
        <ele>960.6</ele>
        <time>2016-07-31T08:41:52Z</time>
      </trkpt>
      <trkpt lat="42.433" lon="0.04191">
        <ele>960.1</ele>
        <time>2016-07-31T08:41:53Z</time>
      </trkpt>
      <trkpt lat="42.43303" lon="0.04193">
        <ele>959.6</ele>
        <time>2016-07-31T08:41:54Z</time>
      </trkpt>
      <trkpt lat="42.43305" lon="0.04195">
        <ele>958.9</ele>
        <time>2016-07-31T08:41:55Z</time>
      </trkpt>
      <trkpt lat="42.43308" lon="0.04198">
        <ele>958.3</ele>
        <time>2016-07-31T08:41:56Z</time>
      </trkpt>
      <trkpt lat="42.4331" lon="0.04201">
        <ele>958</ele>
        <time>2016-07-31T08:41:57Z</time>
      </trkpt>
      <trkpt lat="42.43312" lon="0.04204">
        <ele>957.7</ele>
        <time>2016-07-31T08:41:58Z</time>
      </trkpt>
      <trkpt lat="42.43314" lon="0.04207">
        <ele>957.2</ele>
        <time>2016-07-31T08:41:59Z</time>
      </trkpt>
      <trkpt lat="42.43318" lon="0.04209">
        <ele>956.4</ele>
        <time>2016-07-31T08:42:00Z</time>
      </trkpt>
      <trkpt lat="42.43325" lon="0.04212">
        <ele>954.7</ele>
        <time>2016-07-31T08:42:02Z</time>
      </trkpt>
      <trkpt lat="42.43329" lon="0.04215">
        <ele>954.1</ele>
        <time>2016-07-31T08:42:03Z</time>
      </trkpt>
      <trkpt lat="42.43333" lon="0.04219">
        <ele>953.7</ele>
        <time>2016-07-31T08:42:04Z</time>
      </trkpt>
      <trkpt lat="42.43337" lon="0.04223">
        <ele>953.3</ele>
        <time>2016-07-31T08:42:05Z</time>
      </trkpt>
      <trkpt lat="42.4334" lon="0.04227">
        <ele>953.2</ele>
        <time>2016-07-31T08:42:06Z</time>
      </trkpt>
      <trkpt lat="42.43343" lon="0.04232">
        <ele>953.3</ele>
        <time>2016-07-31T08:42:07Z</time>
      </trkpt>
      <trkpt lat="42.43346" lon="0.04237">
        <ele>953.4</ele>
        <time>2016-07-31T08:42:08Z</time>
      </trkpt>
      <trkpt lat="42.43349" lon="0.04242">
        <ele>953.5</ele>
        <time>2016-07-31T08:42:09Z</time>
      </trkpt>
      <trkpt lat="42.43353" lon="0.04245">
        <ele>953.1</ele>
        <time>2016-07-31T08:42:10Z</time>
      </trkpt>
      <trkpt lat="42.43356" lon="0.04248">
        <ele>952.6</ele>
        <time>2016-07-31T08:42:11Z</time>
      </trkpt>
      <trkpt lat="42.4336" lon="0.04249">
        <ele>951.8</ele>
        <time>2016-07-31T08:42:12Z</time>
      </trkpt>
      <trkpt lat="42.43363" lon="0.04249">
        <ele>950.8</ele>
        <time>2016-07-31T08:42:13Z</time>
      </trkpt>
      <trkpt lat="42.43366" lon="0.0425">
        <ele>949.9</ele>
        <time>2016-07-31T08:42:14Z</time>
      </trkpt>
      <trkpt lat="42.4337" lon="0.04251">
        <ele>948.9</ele>
        <time>2016-07-31T08:42:16Z</time>
      </trkpt>
      <trkpt lat="42.43372" lon="0.04254">
        <ele>948.9</ele>
        <time>2016-07-31T08:42:18Z</time>
      </trkpt>
      <trkpt lat="42.43373" lon="0.04259">
        <ele>949.7</ele>
        <time>2016-07-31T08:42:20Z</time>
      </trkpt>
      <trkpt lat="42.43374" lon="0.04264">
        <ele>950.8</ele>
        <time>2016-07-31T08:42:23Z</time>
      </trkpt>
      <trkpt lat="42.43376" lon="0.04267">
        <ele>950.6</ele>
        <time>2016-07-31T08:42:25Z</time>
      </trkpt>
      <trkpt lat="42.43381" lon="0.04271">
        <ele>949.5</ele>
        <time>2016-07-31T08:42:27Z</time>
      </trkpt>
      <trkpt lat="42.43384" lon="0.04273">
        <ele>948.9</ele>
        <time>2016-07-31T08:42:28Z</time>
      </trkpt>
      <trkpt lat="42.43386" lon="0.04275">
        <ele>948.3</ele>
        <time>2016-07-31T08:42:29Z</time>
      </trkpt>
      <trkpt lat="42.43389" lon="0.04277">
        <ele>947.5</ele>
        <time>2016-07-31T08:42:31Z</time>
      </trkpt>
      <trkpt lat="42.43393" lon="0.04281">
        <ele>946.7</ele>
        <time>2016-07-31T08:42:33Z</time>
      </trkpt>
      <trkpt lat="42.43397" lon="0.04281">
        <ele>944.9</ele>
        <time>2016-07-31T08:42:35Z</time>
      </trkpt>
      <trkpt lat="42.43402" lon="0.0428">
        <ele>942.8</ele>
        <time>2016-07-31T08:42:37Z</time>
      </trkpt>
      <trkpt lat="42.43405" lon="0.04281">
        <ele>941.7</ele>
        <time>2016-07-31T08:42:40Z</time>
      </trkpt>
      <trkpt lat="42.43407" lon="0.04278">
        <ele>940.3</ele>
        <time>2016-07-31T08:42:45Z</time>
      </trkpt>
      <trkpt lat="42.4341" lon="0.04277">
        <ele>938.9</ele>
        <time>2016-07-31T08:42:48Z</time>
      </trkpt>
      <trkpt lat="42.43412" lon="0.0428">
        <ele>938.4</ele>
        <time>2016-07-31T08:42:50Z</time>
      </trkpt>
      <trkpt lat="42.43415" lon="0.04282">
        <ele>937.6</ele>
        <time>2016-07-31T08:42:52Z</time>
      </trkpt>
      <trkpt lat="42.43418" lon="0.04285">
        <ele>937.1</ele>
        <time>2016-07-31T08:42:54Z</time>
      </trkpt>
      <trkpt lat="42.43419" lon="0.04291">
        <ele>937.9</ele>
        <time>2016-07-31T08:42:56Z</time>
      </trkpt>
      <trkpt lat="42.43419" lon="0.04295">
        <ele>938.5</ele>
        <time>2016-07-31T08:42:57Z</time>
      </trkpt>
      <trkpt lat="42.43419" lon="0.04301">
        <ele>939.9</ele>
        <time>2016-07-31T08:42:59Z</time>
      </trkpt>
      <trkpt lat="42.43421" lon="0.04307">
        <ele>939.9</ele>
        <time>2016-07-31T08:43:01Z</time>
      </trkpt>
      <trkpt lat="42.43425" lon="0.0431">
        <ele>938.9</ele>
        <time>2016-07-31T08:43:03Z</time>
      </trkpt>
      <trkpt lat="42.43427" lon="0.04312">
        <ele>938.1</ele>
        <time>2016-07-31T08:43:08Z</time>
      </trkpt>
      <trkpt lat="42.4343" lon="0.04314">
        <ele>937.4</ele>
        <time>2016-07-31T08:43:12Z</time>
      </trkpt>
      <trkpt lat="42.43433" lon="0.04316">
        <ele>936.5</ele>
        <time>2016-07-31T08:43:15Z</time>
      </trkpt>
      <trkpt lat="42.43435" lon="0.04319">
        <ele>936.2</ele>
        <time>2016-07-31T08:43:21Z</time>
      </trkpt>
      <trkpt lat="42.43438" lon="0.0432">
        <ele>934.8</ele>
        <time>2016-07-31T08:43:30Z</time>
      </trkpt>
      <trkpt lat="42.43444" lon="0.04324">
        <ele>933.2</ele>
        <time>2016-07-31T08:44:07Z</time>
      </trkpt>
      <trkpt lat="42.43446" lon="0.04329">
        <ele>932.8</ele>
        <time>2016-07-31T08:44:10Z</time>
      </trkpt>
      <trkpt lat="42.43448" lon="0.04332">
        <ele>932.5</ele>
        <time>2016-07-31T08:44:16Z</time>
      </trkpt>
      <trkpt lat="42.43451" lon="0.04331">
        <ele>931.1</ele>
        <time>2016-07-31T08:44:27Z</time>
      </trkpt>
      <trkpt lat="42.43454" lon="0.0433">
        <ele>929.5</ele>
        <time>2016-07-31T08:44:32Z</time>
      </trkpt>
      <trkpt lat="42.43457" lon="0.0433">
        <ele>928.1</ele>
        <time>2016-07-31T08:44:38Z</time>
      </trkpt>
      <trkpt lat="42.4346" lon="0.04331">
        <ele>926.7</ele>
        <time>2016-07-31T08:44:42Z</time>
      </trkpt>
      <trkpt lat="42.43463" lon="0.04328">
        <ele>925</ele>
        <time>2016-07-31T08:44:45Z</time>
      </trkpt>
      <trkpt lat="42.43467" lon="0.04328">
        <ele>923.4</ele>
        <time>2016-07-31T08:44:48Z</time>
      </trkpt>
      <trkpt lat="42.4347" lon="0.0433">
        <ele>922.4</ele>
        <time>2016-07-31T08:44:52Z</time>
      </trkpt>
      <trkpt lat="42.43471" lon="0.04326">
        <ele>921.2</ele>
        <time>2016-07-31T08:44:57Z</time>
      </trkpt>
      <trkpt lat="42.43473" lon="0.04324">
        <ele>919.8</ele>
        <time>2016-07-31T08:45:00Z</time>
      </trkpt>
      <trkpt lat="42.43477" lon="0.04323">
        <ele>918.1</ele>
        <time>2016-07-31T08:45:03Z</time>
      </trkpt>
      <trkpt lat="42.43481" lon="0.04326">
        <ele>917.1</ele>
        <time>2016-07-31T08:45:05Z</time>
      </trkpt>
      <trkpt lat="42.43484" lon="0.04331">
        <ele>916.4</ele>
        <time>2016-07-31T08:45:07Z</time>
      </trkpt>
      <trkpt lat="42.43488" lon="0.04336">
        <ele>915.5</ele>
        <time>2016-07-31T08:45:09Z</time>
      </trkpt>
      <trkpt lat="42.4349" lon="0.04338">
        <ele>915.1</ele>
        <time>2016-07-31T08:45:10Z</time>
      </trkpt>
      <trkpt lat="42.43492" lon="0.04341">
        <ele>914.5</ele>
        <time>2016-07-31T08:45:12Z</time>
      </trkpt>
      <trkpt lat="42.43494" lon="0.04345">
        <ele>914.2</ele>
        <time>2016-07-31T08:45:18Z</time>
      </trkpt>
      <trkpt lat="42.43496" lon="0.04349">
        <ele>914.1</ele>
        <time>2016-07-31T08:45:20Z</time>
      </trkpt>
      <trkpt lat="42.43496" lon="0.04355">
        <ele>914.8</ele>
        <time>2016-07-31T08:45:23Z</time>
      </trkpt>
      <trkpt lat="42.43498" lon="0.0436">
        <ele>914.8</ele>
        <time>2016-07-31T08:45:25Z</time>
      </trkpt>
      <trkpt lat="42.435" lon="0.04364">
        <ele>914.8</ele>
        <time>2016-07-31T08:45:27Z</time>
      </trkpt>
      <trkpt lat="42.43501" lon="0.04368">
        <ele>915</ele>
        <time>2016-07-31T08:45:29Z</time>
      </trkpt>
      <trkpt lat="42.43503" lon="0.04375">
        <ele>915.2</ele>
        <time>2016-07-31T08:45:31Z</time>
      </trkpt>
      <trkpt lat="42.43504" lon="0.04379">
        <ele>915.2</ele>
        <time>2016-07-31T08:45:32Z</time>
      </trkpt>
      <trkpt lat="42.43507" lon="0.04383">
        <ele>914.4</ele>
        <time>2016-07-31T08:45:34Z</time>
      </trkpt>
      <trkpt lat="42.4351" lon="0.04384">
        <ele>913.4</ele>
        <time>2016-07-31T08:45:35Z</time>
      </trkpt>
      <trkpt lat="42.43514" lon="0.04385">
        <ele>912.1</ele>
        <time>2016-07-31T08:45:37Z</time>
      </trkpt>
      <trkpt lat="42.43517" lon="0.04391">
        <ele>911.7</ele>
        <time>2016-07-31T08:45:39Z</time>
      </trkpt>
      <trkpt lat="42.43518" lon="0.04398">
        <ele>912.2</ele>
        <time>2016-07-31T08:45:41Z</time>
      </trkpt>
      <trkpt lat="42.4352" lon="0.04402">
        <ele>912.1</ele>
        <time>2016-07-31T08:45:43Z</time>
      </trkpt>
      <trkpt lat="42.43522" lon="0.04405">
        <ele>911.5</ele>
        <time>2016-07-31T08:45:44Z</time>
      </trkpt>
      <trkpt lat="42.43525" lon="0.04406">
        <ele>910.5</ele>
        <time>2016-07-31T08:45:45Z</time>
      </trkpt>
      <trkpt lat="42.43529" lon="0.04408">
        <ele>909</ele>
        <time>2016-07-31T08:45:47Z</time>
      </trkpt>
      <trkpt lat="42.43532" lon="0.04411">
        <ele>908.2</ele>
        <time>2016-07-31T08:45:49Z</time>
      </trkpt>
      <trkpt lat="42.43536" lon="0.04414">
        <ele>906.9</ele>
        <time>2016-07-31T08:45:51Z</time>
      </trkpt>
      <trkpt lat="42.4354" lon="0.04417">
        <ele>905.7</ele>
        <time>2016-07-31T08:45:53Z</time>
      </trkpt>
      <trkpt lat="42.43543" lon="0.04423">
        <ele>905.4</ele>
        <time>2016-07-31T08:45:55Z</time>
      </trkpt>
      <trkpt lat="42.43545" lon="0.04426">
        <ele>905.2</ele>
        <time>2016-07-31T08:45:56Z</time>
      </trkpt>
      <trkpt lat="42.43547" lon="0.04429">
        <ele>904.8</ele>
        <time>2016-07-31T08:45:57Z</time>
      </trkpt>
      <trkpt lat="42.4355" lon="0.04434">
        <ele>904.1</ele>
        <time>2016-07-31T08:45:59Z</time>
      </trkpt>
      <trkpt lat="42.43553" lon="0.04438">
        <ele>903.6</ele>
        <time>2016-07-31T08:46:00Z</time>
      </trkpt>
      <trkpt lat="42.43555" lon="0.04442">
        <ele>903</ele>
        <time>2016-07-31T08:46:01Z</time>
      </trkpt>
      <trkpt lat="42.43558" lon="0.04446">
        <ele>902.4</ele>
        <time>2016-07-31T08:46:02Z</time>
      </trkpt>
      <trkpt lat="42.4356" lon="0.04449">
        <ele>901.8</ele>
        <time>2016-07-31T08:46:03Z</time>
      </trkpt>
      <trkpt lat="42.43562" lon="0.04452">
        <ele>901.5</ele>
        <time>2016-07-31T08:46:04Z</time>
      </trkpt>
      <trkpt lat="42.43563" lon="0.04457">
        <ele>901.6</ele>
        <time>2016-07-31T08:46:05Z</time>
      </trkpt>
      <trkpt lat="42.43564" lon="0.04463">
        <ele>902.4</ele>
        <time>2016-07-31T08:46:06Z</time>
      </trkpt>
      <trkpt lat="42.43565" lon="0.04467">
        <ele>903</ele>
        <time>2016-07-31T08:46:07Z</time>
      </trkpt>
      <trkpt lat="42.43568" lon="0.04472">
        <ele>902.9</ele>
        <time>2016-07-31T08:46:09Z</time>
      </trkpt>
      <trkpt lat="42.43571" lon="0.04474">
        <ele>902.2</ele>
        <time>2016-07-31T08:46:10Z</time>
      </trkpt>
      <trkpt lat="42.43573" lon="0.04476">
        <ele>901.5</ele>
        <time>2016-07-31T08:46:11Z</time>
      </trkpt>
      <trkpt lat="42.43576" lon="0.04478">
        <ele>900.7</ele>
        <time>2016-07-31T08:46:12Z</time>
      </trkpt>
      <trkpt lat="42.4358" lon="0.04482">
        <ele>899.8</ele>
        <time>2016-07-31T08:46:14Z</time>
      </trkpt>
      <trkpt lat="42.43584" lon="0.04487">
        <ele>898.8</ele>
        <time>2016-07-31T08:46:16Z</time>
      </trkpt>
      <trkpt lat="42.43587" lon="0.04491">
        <ele>898.3</ele>
        <time>2016-07-31T08:46:17Z</time>
      </trkpt>
      <trkpt lat="42.43589" lon="0.04493">
        <ele>898.1</ele>
        <time>2016-07-31T08:46:18Z</time>
      </trkpt>
      <trkpt lat="42.43591" lon="0.04497">
        <ele>897.9</ele>
        <time>2016-07-31T08:46:19Z</time>
      </trkpt>
      <trkpt lat="42.43593" lon="0.04502">
        <ele>897.8</ele>
        <time>2016-07-31T08:46:20Z</time>
      </trkpt>
      <trkpt lat="42.43595" lon="0.04506">
        <ele>897.8</ele>
        <time>2016-07-31T08:46:21Z</time>
      </trkpt>
      <trkpt lat="42.43596" lon="0.04511">
        <ele>898.1</ele>
        <time>2016-07-31T08:46:22Z</time>
      </trkpt>
      <trkpt lat="42.43598" lon="0.04514">
        <ele>898.4</ele>
        <time>2016-07-31T08:46:23Z</time>
      </trkpt>
      <trkpt lat="42.43601" lon="0.0452">
        <ele>898.2</ele>
        <time>2016-07-31T08:46:25Z</time>
      </trkpt>
      <trkpt lat="42.43603" lon="0.04523">
        <ele>897.5</ele>
        <time>2016-07-31T08:46:26Z</time>
      </trkpt>
      <trkpt lat="42.43606" lon="0.04525">
        <ele>896.5</ele>
        <time>2016-07-31T08:46:27Z</time>
      </trkpt>
      <trkpt lat="42.43609" lon="0.04528">
        <ele>895.5</ele>
        <time>2016-07-31T08:46:28Z</time>
      </trkpt>
      <trkpt lat="42.43612" lon="0.04531">
        <ele>894.5</ele>
        <time>2016-07-31T08:46:29Z</time>
      </trkpt>
      <trkpt lat="42.43616" lon="0.04534">
        <ele>893.4</ele>
        <time>2016-07-31T08:46:30Z</time>
      </trkpt>
      <trkpt lat="42.43619" lon="0.04537">
        <ele>892.3</ele>
        <time>2016-07-31T08:46:31Z</time>
      </trkpt>
      <trkpt lat="42.43622" lon="0.04541">
        <ele>891.2</ele>
        <time>2016-07-31T08:46:32Z</time>
      </trkpt>
      <trkpt lat="42.43625" lon="0.04543">
        <ele>890.2</ele>
        <time>2016-07-31T08:46:33Z</time>
      </trkpt>
      <trkpt lat="42.43628" lon="0.04545">
        <ele>889.6</ele>
        <time>2016-07-31T08:46:34Z</time>
      </trkpt>
      <trkpt lat="42.4363" lon="0.04547">
        <ele>889.1</ele>
        <time>2016-07-31T08:46:35Z</time>
      </trkpt>
      <trkpt lat="42.43633" lon="0.04551">
        <ele>888.5</ele>
        <time>2016-07-31T08:46:36Z</time>
      </trkpt>
      <trkpt lat="42.43636" lon="0.04554">
        <ele>888.1</ele>
        <time>2016-07-31T08:46:37Z</time>
      </trkpt>
      <trkpt lat="42.43639" lon="0.04558">
        <ele>887.8</ele>
        <time>2016-07-31T08:46:38Z</time>
      </trkpt>
      <trkpt lat="42.43641" lon="0.04561">
        <ele>887.6</ele>
        <time>2016-07-31T08:46:39Z</time>
      </trkpt>
      <trkpt lat="42.43643" lon="0.04564">
        <ele>887.2</ele>
        <time>2016-07-31T08:46:40Z</time>
      </trkpt>
      <trkpt lat="42.43646" lon="0.04566">
        <ele>886.3</ele>
        <time>2016-07-31T08:46:41Z</time>
      </trkpt>
      <trkpt lat="42.4365" lon="0.04567">
        <ele>885.1</ele>
        <time>2016-07-31T08:46:42Z</time>
      </trkpt>
      <trkpt lat="42.43653" lon="0.04569">
        <ele>884</ele>
        <time>2016-07-31T08:46:43Z</time>
      </trkpt>
      <trkpt lat="42.43656" lon="0.04574">
        <ele>883.4</ele>
        <time>2016-07-31T08:46:45Z</time>
      </trkpt>
      <trkpt lat="42.43658" lon="0.04578">
        <ele>883.4</ele>
        <time>2016-07-31T08:46:46Z</time>
      </trkpt>
      <trkpt lat="42.4366" lon="0.04582">
        <ele>883.3</ele>
        <time>2016-07-31T08:46:47Z</time>
      </trkpt>
      <trkpt lat="42.43663" lon="0.04585">
        <ele>882.9</ele>
        <time>2016-07-31T08:46:48Z</time>
      </trkpt>
      <trkpt lat="42.43665" lon="0.04589">
        <ele>882.4</ele>
        <time>2016-07-31T08:46:49Z</time>
      </trkpt>
      <trkpt lat="42.43672" lon="0.04598">
        <ele>881.5</ele>
        <time>2016-07-31T08:46:52Z</time>
      </trkpt>
      <trkpt lat="42.43674" lon="0.04602">
        <ele>881.3</ele>
        <time>2016-07-31T08:46:53Z</time>
      </trkpt>
      <trkpt lat="42.43675" lon="0.04606">
        <ele>881.4</ele>
        <time>2016-07-31T08:46:54Z</time>
      </trkpt>
      <trkpt lat="42.43676" lon="0.0461">
        <ele>881.7</ele>
        <time>2016-07-31T08:46:55Z</time>
      </trkpt>
      <trkpt lat="42.43677" lon="0.04614">
        <ele>882.3</ele>
        <time>2016-07-31T08:46:56Z</time>
      </trkpt>
      <trkpt lat="42.43677" lon="0.04618">
        <ele>882.9</ele>
        <time>2016-07-31T08:46:57Z</time>
      </trkpt>
      <trkpt lat="42.43679" lon="0.04623">
        <ele>883.2</ele>
        <time>2016-07-31T08:46:58Z</time>
      </trkpt>
      <trkpt lat="42.4368" lon="0.04626">
        <ele>883.2</ele>
        <time>2016-07-31T08:46:59Z</time>
      </trkpt>
      <trkpt lat="42.43682" lon="0.0463">
        <ele>883.4</ele>
        <time>2016-07-31T08:47:00Z</time>
      </trkpt>
      <trkpt lat="42.43683" lon="0.04634">
        <ele>883.5</ele>
        <time>2016-07-31T08:47:01Z</time>
      </trkpt>
      <trkpt lat="42.43685" lon="0.04639">
        <ele>883.7</ele>
        <time>2016-07-31T08:47:02Z</time>
      </trkpt>
      <trkpt lat="42.43687" lon="0.04643">
        <ele>883.7</ele>
        <time>2016-07-31T08:47:03Z</time>
      </trkpt>
      <trkpt lat="42.43689" lon="0.04646">
        <ele>883.2</ele>
        <time>2016-07-31T08:47:04Z</time>
      </trkpt>
      <trkpt lat="42.43692" lon="0.04649">
        <ele>882.5</ele>
        <time>2016-07-31T08:47:05Z</time>
      </trkpt>
      <trkpt lat="42.43694" lon="0.04652">
        <ele>881.9</ele>
        <time>2016-07-31T08:47:06Z</time>
      </trkpt>
      <trkpt lat="42.43698" lon="0.04656">
        <ele>881</ele>
        <time>2016-07-31T08:47:08Z</time>
      </trkpt>
      <trkpt lat="42.43702" lon="0.04663">
        <ele>880.2</ele>
        <time>2016-07-31T08:47:10Z</time>
      </trkpt>
      <trkpt lat="42.43706" lon="0.04667">
        <ele>879.4</ele>
        <time>2016-07-31T08:47:11Z</time>
      </trkpt>
      <trkpt lat="42.43709" lon="0.04671">
        <ele>878.7</ele>
        <time>2016-07-31T08:47:12Z</time>
      </trkpt>
      <trkpt lat="42.43712" lon="0.04674">
        <ele>878.3</ele>
        <time>2016-07-31T08:47:13Z</time>
      </trkpt>
      <trkpt lat="42.43715" lon="0.04678">
        <ele>877.8</ele>
        <time>2016-07-31T08:47:15Z</time>
      </trkpt>
      <trkpt lat="42.43718" lon="0.04681">
        <ele>877.3</ele>
        <time>2016-07-31T08:47:16Z</time>
      </trkpt>
      <trkpt lat="42.43721" lon="0.04684">
        <ele>876.6</ele>
        <time>2016-07-31T08:47:17Z</time>
      </trkpt>
      <trkpt lat="42.43725" lon="0.04687">
        <ele>875.9</ele>
        <time>2016-07-31T08:47:18Z</time>
      </trkpt>
      <trkpt lat="42.43728" lon="0.04689">
        <ele>875.3</ele>
        <time>2016-07-31T08:47:19Z</time>
      </trkpt>
      <trkpt lat="42.43732" lon="0.04694">
        <ele>874.4</ele>
        <time>2016-07-31T08:47:21Z</time>
      </trkpt>
      <trkpt lat="42.43736" lon="0.04699">
        <ele>873.9</ele>
        <time>2016-07-31T08:47:23Z</time>
      </trkpt>
      <trkpt lat="42.43738" lon="0.04702">
        <ele>873.8</ele>
        <time>2016-07-31T08:47:24Z</time>
      </trkpt>
      <trkpt lat="42.4374" lon="0.04705">
        <ele>873.7</ele>
        <time>2016-07-31T08:47:25Z</time>
      </trkpt>
      <trkpt lat="42.43742" lon="0.04708">
        <ele>873.6</ele>
        <time>2016-07-31T08:47:26Z</time>
      </trkpt>
      <trkpt lat="42.43744" lon="0.04712">
        <ele>873.2</ele>
        <time>2016-07-31T08:47:27Z</time>
      </trkpt>
      <trkpt lat="42.43747" lon="0.04717">
        <ele>873</ele>
        <time>2016-07-31T08:47:28Z</time>
      </trkpt>
      <trkpt lat="42.43749" lon="0.04721">
        <ele>872.7</ele>
        <time>2016-07-31T08:47:29Z</time>
      </trkpt>
      <trkpt lat="42.43751" lon="0.04725">
        <ele>872.5</ele>
        <time>2016-07-31T08:47:30Z</time>
      </trkpt>
      <trkpt lat="42.43754" lon="0.0473">
        <ele>872.3</ele>
        <time>2016-07-31T08:47:31Z</time>
      </trkpt>
      <trkpt lat="42.43757" lon="0.04734">
        <ele>871.9</ele>
        <time>2016-07-31T08:47:32Z</time>
      </trkpt>
      <trkpt lat="42.43762" lon="0.04742">
        <ele>870.8</ele>
        <time>2016-07-31T08:47:34Z</time>
      </trkpt>
      <trkpt lat="42.43765" lon="0.04746">
        <ele>870</ele>
        <time>2016-07-31T08:47:35Z</time>
      </trkpt>
      <trkpt lat="42.43769" lon="0.0475">
        <ele>869</ele>
        <time>2016-07-31T08:47:36Z</time>
      </trkpt>
      <trkpt lat="42.43772" lon="0.04754">
        <ele>868.3</ele>
        <time>2016-07-31T08:47:37Z</time>
      </trkpt>
      <trkpt lat="42.43775" lon="0.04758">
        <ele>867.8</ele>
        <time>2016-07-31T08:47:38Z</time>
      </trkpt>
      <trkpt lat="42.43777" lon="0.04762">
        <ele>867.2</ele>
        <time>2016-07-31T08:47:39Z</time>
      </trkpt>
      <trkpt lat="42.4378" lon="0.04766">
        <ele>866.7</ele>
        <time>2016-07-31T08:47:40Z</time>
      </trkpt>
      <trkpt lat="42.43782" lon="0.04771">
        <ele>866.2</ele>
        <time>2016-07-31T08:47:41Z</time>
      </trkpt>
      <trkpt lat="42.43785" lon="0.04776">
        <ele>865.6</ele>
        <time>2016-07-31T08:47:42Z</time>
      </trkpt>
      <trkpt lat="42.43788" lon="0.04779">
        <ele>864.8</ele>
        <time>2016-07-31T08:47:43Z</time>
      </trkpt>
      <trkpt lat="42.43791" lon="0.04782">
        <ele>863.8</ele>
        <time>2016-07-31T08:47:44Z</time>
      </trkpt>
      <trkpt lat="42.43794" lon="0.04783">
        <ele>862.7</ele>
        <time>2016-07-31T08:47:45Z</time>
      </trkpt>
      <trkpt lat="42.43796" lon="0.04784">
        <ele>861.8</ele>
        <time>2016-07-31T08:47:46Z</time>
      </trkpt>
      <trkpt lat="42.43799" lon="0.04785">
        <ele>860.8</ele>
        <time>2016-07-31T08:47:47Z</time>
      </trkpt>
      <trkpt lat="42.43803" lon="0.04787">
        <ele>859.6</ele>
        <time>2016-07-31T08:47:48Z</time>
      </trkpt>
      <trkpt lat="42.43806" lon="0.04789">
        <ele>858.6</ele>
        <time>2016-07-31T08:47:49Z</time>
      </trkpt>
      <trkpt lat="42.43809" lon="0.04793">
        <ele>857.8</ele>
        <time>2016-07-31T08:47:50Z</time>
      </trkpt>
      <trkpt lat="42.43813" lon="0.04797">
        <ele>857.1</ele>
        <time>2016-07-31T08:47:51Z</time>
      </trkpt>
      <trkpt lat="42.43817" lon="0.048">
        <ele>856.3</ele>
        <time>2016-07-31T08:47:52Z</time>
      </trkpt>
      <trkpt lat="42.4382" lon="0.04803">
        <ele>855.7</ele>
        <time>2016-07-31T08:47:53Z</time>
      </trkpt>
      <trkpt lat="42.43823" lon="0.04805">
        <ele>855.1</ele>
        <time>2016-07-31T08:47:54Z</time>
      </trkpt>
      <trkpt lat="42.43827" lon="0.04812">
        <ele>854.7</ele>
        <time>2016-07-31T08:47:56Z</time>
      </trkpt>
      <trkpt lat="42.43829" lon="0.04815">
        <ele>854.6</ele>
        <time>2016-07-31T08:47:57Z</time>
      </trkpt>
      <trkpt lat="42.43831" lon="0.04818">
        <ele>854.3</ele>
        <time>2016-07-31T08:47:58Z</time>
      </trkpt>
      <trkpt lat="42.43833" lon="0.04821">
        <ele>853.8</ele>
        <time>2016-07-31T08:47:59Z</time>
      </trkpt>
      <trkpt lat="42.43836" lon="0.04823">
        <ele>853.2</ele>
        <time>2016-07-31T08:48:00Z</time>
      </trkpt>
      <trkpt lat="42.4384" lon="0.04825">
        <ele>851.9</ele>
        <time>2016-07-31T08:48:02Z</time>
      </trkpt>
      <trkpt lat="42.43844" lon="0.04828">
        <ele>850.5</ele>
        <time>2016-07-31T08:48:04Z</time>
      </trkpt>
      <trkpt lat="42.43848" lon="0.04831">
        <ele>849.7</ele>
        <time>2016-07-31T08:48:06Z</time>
      </trkpt>
      <trkpt lat="42.43851" lon="0.04835">
        <ele>848.8</ele>
        <time>2016-07-31T08:48:08Z</time>
      </trkpt>
      <trkpt lat="42.43854" lon="0.04841">
        <ele>848.6</ele>
        <time>2016-07-31T08:48:10Z</time>
      </trkpt>
      <trkpt lat="42.43856" lon="0.04844">
        <ele>848.7</ele>
        <time>2016-07-31T08:48:11Z</time>
      </trkpt>
      <trkpt lat="42.43858" lon="0.04849">
        <ele>848.8</ele>
        <time>2016-07-31T08:48:12Z</time>
      </trkpt>
      <trkpt lat="42.43859" lon="0.04852">
        <ele>848.7</ele>
        <time>2016-07-31T08:48:13Z</time>
      </trkpt>
      <trkpt lat="42.43861" lon="0.04856">
        <ele>848.9</ele>
        <time>2016-07-31T08:48:14Z</time>
      </trkpt>
      <trkpt lat="42.43862" lon="0.04861">
        <ele>849.1</ele>
        <time>2016-07-31T08:48:15Z</time>
      </trkpt>
      <trkpt lat="42.43864" lon="0.04865">
        <ele>849.2</ele>
        <time>2016-07-31T08:48:16Z</time>
      </trkpt>
      <trkpt lat="42.43866" lon="0.04869">
        <ele>848.8</ele>
        <time>2016-07-31T08:48:17Z</time>
      </trkpt>
      <trkpt lat="42.43869" lon="0.04871">
        <ele>848</ele>
        <time>2016-07-31T08:48:18Z</time>
      </trkpt>
      <trkpt lat="42.43873" lon="0.04872">
        <ele>846.5</ele>
        <time>2016-07-31T08:48:20Z</time>
      </trkpt>
      <trkpt lat="42.43877" lon="0.04873">
        <ele>844.6</ele>
        <time>2016-07-31T08:48:22Z</time>
      </trkpt>
      <trkpt lat="42.4388" lon="0.04876">
        <ele>843.5</ele>
        <time>2016-07-31T08:48:23Z</time>
      </trkpt>
      <trkpt lat="42.43886" lon="0.04883">
        <ele>842.5</ele>
        <time>2016-07-31T08:48:25Z</time>
      </trkpt>
      <trkpt lat="42.43888" lon="0.04885">
        <ele>841.7</ele>
        <time>2016-07-31T08:48:26Z</time>
      </trkpt>
      <trkpt lat="42.43891" lon="0.04886">
        <ele>840.5</ele>
        <time>2016-07-31T08:48:27Z</time>
      </trkpt>
      <trkpt lat="42.43895" lon="0.04886">
        <ele>838.9</ele>
        <time>2016-07-31T08:48:28Z</time>
      </trkpt>
      <trkpt lat="42.43898" lon="0.04886">
        <ele>837.2</ele>
        <time>2016-07-31T08:48:29Z</time>
      </trkpt>
      <trkpt lat="42.43901" lon="0.04887">
        <ele>835.7</ele>
        <time>2016-07-31T08:48:30Z</time>
      </trkpt>
      <trkpt lat="42.43906" lon="0.04888">
        <ele>833.6</ele>
        <time>2016-07-31T08:48:32Z</time>
      </trkpt>
      <trkpt lat="42.4391" lon="0.04892">
        <ele>832.6</ele>
        <time>2016-07-31T08:48:34Z</time>
      </trkpt>
      <trkpt lat="42.43914" lon="0.04893">
        <ele>830.9</ele>
        <time>2016-07-31T08:48:36Z</time>
      </trkpt>
      <trkpt lat="42.4392" lon="0.04894">
        <ele>828.5</ele>
        <time>2016-07-31T08:48:38Z</time>
      </trkpt>
      <trkpt lat="42.43923" lon="0.04896">
        <ele>827.6</ele>
        <time>2016-07-31T08:48:39Z</time>
      </trkpt>
      <trkpt lat="42.43925" lon="0.04898">
        <ele>827.2</ele>
        <time>2016-07-31T08:48:40Z</time>
      </trkpt>
      <trkpt lat="42.43927" lon="0.04903">
        <ele>827.3</ele>
        <time>2016-07-31T08:48:42Z</time>
      </trkpt>
      <trkpt lat="42.4393" lon="0.04902">
        <ele>825.7</ele>
        <time>2016-07-31T08:48:52Z</time>
      </trkpt>
      <trkpt lat="42.43933" lon="0.04904">
        <ele>824.8</ele>
        <time>2016-07-31T08:48:54Z</time>
      </trkpt>
      <trkpt lat="42.43937" lon="0.04906">
        <ele>823.9</ele>
        <time>2016-07-31T08:48:56Z</time>
      </trkpt>
      <trkpt lat="42.43939" lon="0.04909">
        <ele>823.5</ele>
        <time>2016-07-31T08:48:58Z</time>
      </trkpt>
      <trkpt lat="42.43942" lon="0.04913">
        <ele>823.5</ele>
        <time>2016-07-31T08:49:27Z</time>
      </trkpt>
      <trkpt lat="42.43946" lon="0.04916">
        <ele>822.6</ele>
        <time>2016-07-31T08:49:29Z</time>
      </trkpt>
      <trkpt lat="42.43951" lon="0.04919">
        <ele>821.3</ele>
        <time>2016-07-31T08:49:31Z</time>
      </trkpt>
      <trkpt lat="42.43953" lon="0.0492">
        <ele>820.5</ele>
        <time>2016-07-31T08:49:32Z</time>
      </trkpt>
      <trkpt lat="42.43956" lon="0.04921">
        <ele>819.5</ele>
        <time>2016-07-31T08:49:33Z</time>
      </trkpt>
      <trkpt lat="42.4396" lon="0.04922">
        <ele>818.5</ele>
        <time>2016-07-31T08:49:34Z</time>
      </trkpt>
      <trkpt lat="42.43963" lon="0.04924">
        <ele>817.8</ele>
        <time>2016-07-31T08:49:35Z</time>
      </trkpt>
      <trkpt lat="42.43966" lon="0.04927">
        <ele>817.4</ele>
        <time>2016-07-31T08:49:36Z</time>
      </trkpt>
      <trkpt lat="42.43969" lon="0.04931">
        <ele>817.7</ele>
        <time>2016-07-31T08:49:37Z</time>
      </trkpt>
      <trkpt lat="42.43972" lon="0.04936">
        <ele>818.3</ele>
        <time>2016-07-31T08:49:38Z</time>
      </trkpt>
      <trkpt lat="42.43975" lon="0.0494">
        <ele>818.7</ele>
        <time>2016-07-31T08:49:39Z</time>
      </trkpt>
      <trkpt lat="42.43977" lon="0.04944">
        <ele>818.9</ele>
        <time>2016-07-31T08:49:40Z</time>
      </trkpt>
      <trkpt lat="42.43981" lon="0.04947">
        <ele>818.5</ele>
        <time>2016-07-31T08:49:41Z</time>
      </trkpt>
      <trkpt lat="42.43985" lon="0.0495">
        <ele>818</ele>
        <time>2016-07-31T08:49:42Z</time>
      </trkpt>
      <trkpt lat="42.43988" lon="0.04953">
        <ele>817.7</ele>
        <time>2016-07-31T08:49:43Z</time>
      </trkpt>
      <trkpt lat="42.43992" lon="0.04957">
        <ele>817.5</ele>
        <time>2016-07-31T08:49:44Z</time>
      </trkpt>
      <trkpt lat="42.43995" lon="0.04962">
        <ele>817.9</ele>
        <time>2016-07-31T08:49:45Z</time>
      </trkpt>
      <trkpt lat="42.43998" lon="0.04965">
        <ele>818.1</ele>
        <time>2016-07-31T08:49:46Z</time>
      </trkpt>
      <trkpt lat="42.44" lon="0.04968">
        <ele>818.3</ele>
        <time>2016-07-31T08:49:47Z</time>
      </trkpt>
      <trkpt lat="42.44004" lon="0.0497">
        <ele>817.6</ele>
        <time>2016-07-31T08:49:49Z</time>
      </trkpt>
      <trkpt lat="42.44008" lon="0.04971">
        <ele>816.6</ele>
        <time>2016-07-31T08:49:50Z</time>
      </trkpt>
      <trkpt lat="42.44012" lon="0.04972">
        <ele>815</ele>
        <time>2016-07-31T08:49:51Z</time>
      </trkpt>
      <trkpt lat="42.44018" lon="0.04974">
        <ele>813.6</ele>
        <time>2016-07-31T08:49:52Z</time>
      </trkpt>
      <trkpt lat="42.44022" lon="0.04976">
        <ele>812.6</ele>
        <time>2016-07-31T08:49:53Z</time>
      </trkpt>
      <trkpt lat="42.44027" lon="0.04979">
        <ele>811.9</ele>
        <time>2016-07-31T08:49:54Z</time>
      </trkpt>
      <trkpt lat="42.44032" lon="0.04982">
        <ele>811.3</ele>
        <time>2016-07-31T08:49:55Z</time>
      </trkpt>
      <trkpt lat="42.44037" lon="0.04984">
        <ele>810.5</ele>
        <time>2016-07-31T08:49:56Z</time>
      </trkpt>
      <trkpt lat="42.44042" lon="0.04987">
        <ele>809.6</ele>
        <time>2016-07-31T08:49:57Z</time>
      </trkpt>
      <trkpt lat="42.44047" lon="0.0499">
        <ele>809.6</ele>
        <time>2016-07-31T08:49:58Z</time>
      </trkpt>
      <trkpt lat="42.44052" lon="0.04992">
        <ele>809.4</ele>
        <time>2016-07-31T08:49:59Z</time>
      </trkpt>
      <trkpt lat="42.44057" lon="0.04994">
        <ele>809.4</ele>
        <time>2016-07-31T08:50:00Z</time>
      </trkpt>
      <trkpt lat="42.44061" lon="0.04997">
        <ele>809.7</ele>
        <time>2016-07-31T08:50:01Z</time>
      </trkpt>
      <trkpt lat="42.44066" lon="0.05001">
        <ele>810</ele>
        <time>2016-07-31T08:50:02Z</time>
      </trkpt>
      <trkpt lat="42.4407" lon="0.05003">
        <ele>810.2</ele>
        <time>2016-07-31T08:50:03Z</time>
      </trkpt>
      <trkpt lat="42.44073" lon="0.05006">
        <ele>810.3</ele>
        <time>2016-07-31T08:50:04Z</time>
      </trkpt>
      <trkpt lat="42.44078" lon="0.05007">
        <ele>810</ele>
        <time>2016-07-31T08:50:05Z</time>
      </trkpt>
      <trkpt lat="42.44082" lon="0.05008">
        <ele>809.4</ele>
        <time>2016-07-31T08:50:06Z</time>
      </trkpt>
      <trkpt lat="42.44087" lon="0.05008">
        <ele>808.4</ele>
        <time>2016-07-31T08:50:07Z</time>
      </trkpt>
      <trkpt lat="42.44092" lon="0.05008">
        <ele>807</ele>
        <time>2016-07-31T08:50:08Z</time>
      </trkpt>
      <trkpt lat="42.44096" lon="0.05007">
        <ele>805.6</ele>
        <time>2016-07-31T08:50:09Z</time>
      </trkpt>
      <trkpt lat="42.441" lon="0.05007">
        <ele>804.6</ele>
        <time>2016-07-31T08:50:10Z</time>
      </trkpt>
      <trkpt lat="42.44104" lon="0.05008">
        <ele>804</ele>
        <time>2016-07-31T08:50:11Z</time>
      </trkpt>
      <trkpt lat="42.44107" lon="0.05009">
        <ele>803.8</ele>
        <time>2016-07-31T08:50:12Z</time>
      </trkpt>
      <trkpt lat="42.4411" lon="0.05011">
        <ele>803.7</ele>
        <time>2016-07-31T08:50:13Z</time>
      </trkpt>
      <trkpt lat="42.44113" lon="0.05012">
        <ele>803.5</ele>
        <time>2016-07-31T08:50:14Z</time>
      </trkpt>
      <trkpt lat="42.44116" lon="0.05013">
        <ele>803.3</ele>
        <time>2016-07-31T08:50:15Z</time>
      </trkpt>
      <trkpt lat="42.44119" lon="0.05014">
        <ele>803.3</ele>
        <time>2016-07-31T08:50:16Z</time>
      </trkpt>
      <trkpt lat="42.44121" lon="0.05017">
        <ele>803.7</ele>
        <time>2016-07-31T08:50:17Z</time>
      </trkpt>
      <trkpt lat="42.44124" lon="0.05019">
        <ele>804.2</ele>
        <time>2016-07-31T08:50:18Z</time>
      </trkpt>
      <trkpt lat="42.44127" lon="0.05022">
        <ele>805</ele>
        <time>2016-07-31T08:50:20Z</time>
      </trkpt>
      <trkpt lat="42.44131" lon="0.05025">
        <ele>805</ele>
        <time>2016-07-31T08:50:22Z</time>
      </trkpt>
      <trkpt lat="42.44134" lon="0.05027">
        <ele>805.3</ele>
        <time>2016-07-31T08:50:23Z</time>
      </trkpt>
      <trkpt lat="42.44137" lon="0.0503">
        <ele>805.8</ele>
        <time>2016-07-31T08:50:24Z</time>
      </trkpt>
      <trkpt lat="42.44139" lon="0.05033">
        <ele>806.5</ele>
        <time>2016-07-31T08:50:25Z</time>
      </trkpt>
      <trkpt lat="42.44141" lon="0.05036">
        <ele>807.5</ele>
        <time>2016-07-31T08:50:26Z</time>
      </trkpt>
      <trkpt lat="42.44143" lon="0.05039">
        <ele>808.4</ele>
        <time>2016-07-31T08:50:27Z</time>
      </trkpt>
      <trkpt lat="42.44145" lon="0.05042">
        <ele>809.2</ele>
        <time>2016-07-31T08:50:28Z</time>
      </trkpt>
      <trkpt lat="42.44149" lon="0.05047">
        <ele>810.3</ele>
        <time>2016-07-31T08:50:30Z</time>
      </trkpt>
      <trkpt lat="42.44153" lon="0.0505">
        <ele>810.5</ele>
        <time>2016-07-31T08:50:32Z</time>
      </trkpt>
      <trkpt lat="42.44158" lon="0.05054">
        <ele>811.1</ele>
        <time>2016-07-31T08:50:34Z</time>
      </trkpt>
      <trkpt lat="42.4416" lon="0.05056">
        <ele>811.5</ele>
        <time>2016-07-31T08:50:35Z</time>
      </trkpt>
      <trkpt lat="42.44163" lon="0.05058">
        <ele>811.6</ele>
        <time>2016-07-31T08:50:36Z</time>
      </trkpt>
      <trkpt lat="42.44166" lon="0.05059">
        <ele>811.6</ele>
        <time>2016-07-31T08:50:37Z</time>
      </trkpt>
      <trkpt lat="42.44169" lon="0.05061">
        <ele>811.7</ele>
        <time>2016-07-31T08:50:38Z</time>
      </trkpt>
      <trkpt lat="42.44173" lon="0.05065">
        <ele>812.8</ele>
        <time>2016-07-31T08:50:40Z</time>
      </trkpt>
      <trkpt lat="42.44176" lon="0.05069">
        <ele>813.8</ele>
        <time>2016-07-31T08:50:42Z</time>
      </trkpt>
      <trkpt lat="42.44181" lon="0.05073">
        <ele>814.2</ele>
        <time>2016-07-31T08:50:44Z</time>
      </trkpt>
      <trkpt lat="42.44184" lon="0.05074">
        <ele>814.2</ele>
        <time>2016-07-31T08:50:45Z</time>
      </trkpt>
      <trkpt lat="42.44189" lon="0.05077">
        <ele>814.6</ele>
        <time>2016-07-31T08:50:47Z</time>
      </trkpt>
      <trkpt lat="42.44193" lon="0.05081">
        <ele>815.3</ele>
        <time>2016-07-31T08:50:49Z</time>
      </trkpt>
      <trkpt lat="42.44196" lon="0.05083">
        <ele>815.6</ele>
        <time>2016-07-31T08:50:50Z</time>
      </trkpt>
      <trkpt lat="42.44199" lon="0.05084">
        <ele>815.7</ele>
        <time>2016-07-31T08:50:51Z</time>
      </trkpt>
      <trkpt lat="42.44202" lon="0.05086">
        <ele>815.7</ele>
        <time>2016-07-31T08:50:52Z</time>
      </trkpt>
      <trkpt lat="42.44205" lon="0.05087">
        <ele>815.7</ele>
        <time>2016-07-31T08:50:53Z</time>
      </trkpt>
      <trkpt lat="42.44207" lon="0.05089">
        <ele>815.7</ele>
        <time>2016-07-31T08:50:54Z</time>
      </trkpt>
      <trkpt lat="42.4421" lon="0.0509">
        <ele>815.6</ele>
        <time>2016-07-31T08:50:55Z</time>
      </trkpt>
      <trkpt lat="42.44213" lon="0.05092">
        <ele>815.4</ele>
        <time>2016-07-31T08:50:56Z</time>
      </trkpt>
      <trkpt lat="42.44217" lon="0.05094">
        <ele>815.3</ele>
        <time>2016-07-31T08:50:57Z</time>
      </trkpt>
      <trkpt lat="42.4422" lon="0.05096">
        <ele>815.3</ele>
        <time>2016-07-31T08:50:58Z</time>
      </trkpt>
      <trkpt lat="42.44223" lon="0.05098">
        <ele>815.3</ele>
        <time>2016-07-31T08:50:59Z</time>
      </trkpt>
      <trkpt lat="42.44226" lon="0.05099">
        <ele>815.2</ele>
        <time>2016-07-31T08:51:00Z</time>
      </trkpt>
      <trkpt lat="42.44229" lon="0.051">
        <ele>814.7</ele>
        <time>2016-07-31T08:51:01Z</time>
      </trkpt>
      <trkpt lat="42.44232" lon="0.05101">
        <ele>814</ele>
        <time>2016-07-31T08:51:02Z</time>
      </trkpt>
      <trkpt lat="42.44236" lon="0.05103">
        <ele>813.6</ele>
        <time>2016-07-31T08:51:03Z</time>
      </trkpt>
      <trkpt lat="42.44239" lon="0.05105">
        <ele>813.5</ele>
        <time>2016-07-31T08:51:04Z</time>
      </trkpt>
      <trkpt lat="42.44243" lon="0.05108">
        <ele>813.5</ele>
        <time>2016-07-31T08:51:05Z</time>
      </trkpt>
      <trkpt lat="42.44246" lon="0.0511">
        <ele>813.4</ele>
        <time>2016-07-31T08:51:06Z</time>
      </trkpt>
      <trkpt lat="42.44249" lon="0.05112">
        <ele>813.4</ele>
        <time>2016-07-31T08:51:07Z</time>
      </trkpt>
      <trkpt lat="42.44252" lon="0.05113">
        <ele>813.5</ele>
        <time>2016-07-31T08:51:08Z</time>
      </trkpt>
      <trkpt lat="42.44256" lon="0.05118">
        <ele>814.2</ele>
        <time>2016-07-31T08:51:10Z</time>
      </trkpt>
      <trkpt lat="42.44259" lon="0.05122">
        <ele>815.5</ele>
        <time>2016-07-31T08:51:12Z</time>
      </trkpt>
      <trkpt lat="42.44261" lon="0.05126">
        <ele>816.3</ele>
        <time>2016-07-31T08:51:13Z</time>
      </trkpt>
      <trkpt lat="42.44263" lon="0.05129">
        <ele>816.8</ele>
        <time>2016-07-31T08:51:14Z</time>
      </trkpt>
      <trkpt lat="42.44265" lon="0.05133">
        <ele>817.4</ele>
        <time>2016-07-31T08:51:15Z</time>
      </trkpt>
      <trkpt lat="42.44267" lon="0.05137">
        <ele>818.1</ele>
        <time>2016-07-31T08:51:16Z</time>
      </trkpt>
      <trkpt lat="42.44269" lon="0.05141">
        <ele>818.9</ele>
        <time>2016-07-31T08:51:17Z</time>
      </trkpt>
      <trkpt lat="42.44271" lon="0.05144">
        <ele>819.6</ele>
        <time>2016-07-31T08:51:18Z</time>
      </trkpt>
      <trkpt lat="42.44273" lon="0.05148">
        <ele>820.2</ele>
        <time>2016-07-31T08:51:19Z</time>
      </trkpt>
      <trkpt lat="42.44274" lon="0.05151">
        <ele>820.8</ele>
        <time>2016-07-31T08:51:20Z</time>
      </trkpt>
      <trkpt lat="42.44276" lon="0.05154">
        <ele>821.1</ele>
        <time>2016-07-31T08:51:21Z</time>
      </trkpt>
      <trkpt lat="42.4428" lon="0.0516">
        <ele>821.6</ele>
        <time>2016-07-31T08:51:23Z</time>
      </trkpt>
      <trkpt lat="42.44282" lon="0.05163">
        <ele>821.8</ele>
        <time>2016-07-31T08:51:24Z</time>
      </trkpt>
      <trkpt lat="42.44285" lon="0.05167">
        <ele>822</ele>
        <time>2016-07-31T08:51:25Z</time>
      </trkpt>
      <trkpt lat="42.44288" lon="0.05171">
        <ele>822.2</ele>
        <time>2016-07-31T08:51:26Z</time>
      </trkpt>
      <trkpt lat="42.44291" lon="0.05175">
        <ele>822.5</ele>
        <time>2016-07-31T08:51:27Z</time>
      </trkpt>
      <trkpt lat="42.44294" lon="0.05179">
        <ele>822.5</ele>
        <time>2016-07-31T08:51:28Z</time>
      </trkpt>
      <trkpt lat="42.44297" lon="0.05183">
        <ele>822</ele>
        <time>2016-07-31T08:51:29Z</time>
      </trkpt>
      <trkpt lat="42.443" lon="0.05186">
        <ele>821.1</ele>
        <time>2016-07-31T08:51:30Z</time>
      </trkpt>
      <trkpt lat="42.44304" lon="0.05189">
        <ele>820</ele>
        <time>2016-07-31T08:51:31Z</time>
      </trkpt>
      <trkpt lat="42.44307" lon="0.05191">
        <ele>818.9</ele>
        <time>2016-07-31T08:51:32Z</time>
      </trkpt>
      <trkpt lat="42.4431" lon="0.05194">
        <ele>818.2</ele>
        <time>2016-07-31T08:51:33Z</time>
      </trkpt>
      <trkpt lat="42.44313" lon="0.05198">
        <ele>817.7</ele>
        <time>2016-07-31T08:51:34Z</time>
      </trkpt>
      <trkpt lat="42.44316" lon="0.05202">
        <ele>817.6</ele>
        <time>2016-07-31T08:51:35Z</time>
      </trkpt>
      <trkpt lat="42.44319" lon="0.05207">
        <ele>817.4</ele>
        <time>2016-07-31T08:51:36Z</time>
      </trkpt>
      <trkpt lat="42.44322" lon="0.05212">
        <ele>817</ele>
        <time>2016-07-31T08:51:37Z</time>
      </trkpt>
      <trkpt lat="42.44325" lon="0.05216">
        <ele>816.7</ele>
        <time>2016-07-31T08:51:38Z</time>
      </trkpt>
      <trkpt lat="42.44328" lon="0.05221">
        <ele>816.6</ele>
        <time>2016-07-31T08:51:39Z</time>
      </trkpt>
      <trkpt lat="42.4433" lon="0.05224">
        <ele>816.6</ele>
        <time>2016-07-31T08:51:40Z</time>
      </trkpt>
      <trkpt lat="42.44332" lon="0.05228">
        <ele>816.6</ele>
        <time>2016-07-31T08:51:41Z</time>
      </trkpt>
      <trkpt lat="42.44335" lon="0.05231">
        <ele>816.5</ele>
        <time>2016-07-31T08:51:42Z</time>
      </trkpt>
      <trkpt lat="42.44339" lon="0.05236">
        <ele>815.5</ele>
        <time>2016-07-31T08:51:44Z</time>
      </trkpt>
      <trkpt lat="42.44342" lon="0.05238">
        <ele>814.7</ele>
        <time>2016-07-31T08:51:45Z</time>
      </trkpt>
      <trkpt lat="42.44346" lon="0.05241">
        <ele>813.7</ele>
        <time>2016-07-31T08:51:46Z</time>
      </trkpt>
      <trkpt lat="42.44348" lon="0.05243">
        <ele>813.2</ele>
        <time>2016-07-31T08:51:47Z</time>
      </trkpt>
      <trkpt lat="42.44351" lon="0.05248">
        <ele>813.1</ele>
        <time>2016-07-31T08:51:49Z</time>
      </trkpt>
      <trkpt lat="42.44353" lon="0.05252">
        <ele>813.5</ele>
        <time>2016-07-31T08:51:51Z</time>
      </trkpt>
      <trkpt lat="42.44357" lon="0.05254">
        <ele>812</ele>
        <time>2016-07-31T08:51:53Z</time>
      </trkpt>
      <trkpt lat="42.44361" lon="0.05257">
        <ele>810.6</ele>
        <time>2016-07-31T08:51:55Z</time>
      </trkpt>
      <trkpt lat="42.44364" lon="0.05262">
        <ele>810.8</ele>
        <time>2016-07-31T08:51:57Z</time>
      </trkpt>
      <trkpt lat="42.44366" lon="0.05265">
        <ele>810.9</ele>
        <time>2016-07-31T08:51:58Z</time>
      </trkpt>
      <trkpt lat="42.44368" lon="0.05269">
        <ele>810.8</ele>
        <time>2016-07-31T08:51:59Z</time>
      </trkpt>
      <trkpt lat="42.4437" lon="0.05271">
        <ele>810.4</ele>
        <time>2016-07-31T08:52:00Z</time>
      </trkpt>
      <trkpt lat="42.44373" lon="0.05273">
        <ele>809.6</ele>
        <time>2016-07-31T08:52:01Z</time>
      </trkpt>
      <trkpt lat="42.44377" lon="0.05276">
        <ele>808.2</ele>
        <time>2016-07-31T08:52:03Z</time>
      </trkpt>
      <trkpt lat="42.4438" lon="0.05279">
        <ele>807.1</ele>
        <time>2016-07-31T08:52:05Z</time>
      </trkpt>
      <trkpt lat="42.44384" lon="0.05282">
        <ele>806</ele>
        <time>2016-07-31T08:52:07Z</time>
      </trkpt>
      <trkpt lat="42.44386" lon="0.05285">
        <ele>805.5</ele>
        <time>2016-07-31T08:52:08Z</time>
      </trkpt>
      <trkpt lat="42.44388" lon="0.05288">
        <ele>805.5</ele>
        <time>2016-07-31T08:52:09Z</time>
      </trkpt>
      <trkpt lat="42.44389" lon="0.05291">
        <ele>805.6</ele>
        <time>2016-07-31T08:52:10Z</time>
      </trkpt>
      <trkpt lat="42.44391" lon="0.05295">
        <ele>805.3</ele>
        <time>2016-07-31T08:52:11Z</time>
      </trkpt>
      <trkpt lat="42.44393" lon="0.05298">
        <ele>805</ele>
        <time>2016-07-31T08:52:12Z</time>
      </trkpt>
      <trkpt lat="42.44394" lon="0.05303">
        <ele>805</ele>
        <time>2016-07-31T08:52:13Z</time>
      </trkpt>
      <trkpt lat="42.44395" lon="0.05307">
        <ele>805.1</ele>
        <time>2016-07-31T08:52:14Z</time>
      </trkpt>
      <trkpt lat="42.44396" lon="0.0531">
        <ele>805.6</ele>
        <time>2016-07-31T08:52:15Z</time>
      </trkpt>
      <trkpt lat="42.44397" lon="0.05316">
        <ele>806.2</ele>
        <time>2016-07-31T08:52:17Z</time>
      </trkpt>
      <trkpt lat="42.444" lon="0.05322">
        <ele>805.3</ele>
        <time>2016-07-31T08:52:19Z</time>
      </trkpt>
      <trkpt lat="42.44402" lon="0.05325">
        <ele>804.5</ele>
        <time>2016-07-31T08:52:20Z</time>
      </trkpt>
      <trkpt lat="42.44405" lon="0.05329">
        <ele>803.5</ele>
        <time>2016-07-31T08:52:21Z</time>
      </trkpt>
      <trkpt lat="42.44407" lon="0.05333">
        <ele>802.4</ele>
        <time>2016-07-31T08:52:22Z</time>
      </trkpt>
      <trkpt lat="42.44409" lon="0.05336">
        <ele>801.9</ele>
        <time>2016-07-31T08:52:23Z</time>
      </trkpt>
      <trkpt lat="42.44411" lon="0.05341">
        <ele>802</ele>
        <time>2016-07-31T08:52:25Z</time>
      </trkpt>
      <trkpt lat="42.44412" lon="0.05348">
        <ele>802.5</ele>
        <time>2016-07-31T08:52:27Z</time>
      </trkpt>
      <trkpt lat="42.44412" lon="0.05353">
        <ele>803.2</ele>
        <time>2016-07-31T08:52:28Z</time>
      </trkpt>
      <trkpt lat="42.44413" lon="0.05358">
        <ele>803.9</ele>
        <time>2016-07-31T08:52:29Z</time>
      </trkpt>
      <trkpt lat="42.44413" lon="0.05363">
        <ele>804.5</ele>
        <time>2016-07-31T08:52:30Z</time>
      </trkpt>
      <trkpt lat="42.44415" lon="0.05369">
        <ele>804.7</ele>
        <time>2016-07-31T08:52:31Z</time>
      </trkpt>
      <trkpt lat="42.44417" lon="0.05374">
        <ele>804.2</ele>
        <time>2016-07-31T08:52:32Z</time>
      </trkpt>
      <trkpt lat="42.44418" lon="0.05377">
        <ele>803.7</ele>
        <time>2016-07-31T08:52:33Z</time>
      </trkpt>
      <trkpt lat="42.44419" lon="0.05381">
        <ele>803.1</ele>
        <time>2016-07-31T08:52:35Z</time>
      </trkpt>
      <trkpt lat="42.44421" lon="0.05384">
        <ele>802.5</ele>
        <time>2016-07-31T08:52:37Z</time>
      </trkpt>
      <trkpt lat="42.44422" lon="0.05389">
        <ele>802.2</ele>
        <time>2016-07-31T08:52:40Z</time>
      </trkpt>
      <trkpt lat="42.44421" lon="0.05394">
        <ele>802.9</ele>
        <time>2016-07-31T08:52:42Z</time>
      </trkpt>
      <trkpt lat="42.44422" lon="0.05399">
        <ele>802.8</ele>
        <time>2016-07-31T08:52:44Z</time>
      </trkpt>
      <trkpt lat="42.44425" lon="0.05399">
        <ele>800.6</ele>
        <time>2016-07-31T08:52:46Z</time>
      </trkpt>
      <trkpt lat="42.44429" lon="0.05394">
        <ele>797.2</ele>
        <time>2016-07-31T08:52:48Z</time>
      </trkpt>
      <trkpt lat="42.44431" lon="0.05392">
        <ele>795.3</ele>
        <time>2016-07-31T08:52:50Z</time>
      </trkpt>
      <trkpt lat="42.44434" lon="0.05394">
        <ele>793.6</ele>
        <time>2016-07-31T08:52:52Z</time>
      </trkpt>
      <trkpt lat="42.44435" lon="0.05398">
        <ele>793.2</ele>
        <time>2016-07-31T08:52:53Z</time>
      </trkpt>
      <trkpt lat="42.44435" lon="0.05403">
        <ele>793.6</ele>
        <time>2016-07-31T08:52:54Z</time>
      </trkpt>
      <trkpt lat="42.44434" lon="0.05408">
        <ele>794.5</ele>
        <time>2016-07-31T08:52:55Z</time>
      </trkpt>
      <trkpt lat="42.44433" lon="0.05413">
        <ele>795.7</ele>
        <time>2016-07-31T08:52:56Z</time>
      </trkpt>
      <trkpt lat="42.44432" lon="0.05419">
        <ele>796.7</ele>
        <time>2016-07-31T08:52:57Z</time>
      </trkpt>
      <trkpt lat="42.44432" lon="0.05424">
        <ele>797.4</ele>
        <time>2016-07-31T08:52:58Z</time>
      </trkpt>
      <trkpt lat="42.44431" lon="0.05429">
        <ele>798.2</ele>
        <time>2016-07-31T08:52:59Z</time>
      </trkpt>
      <trkpt lat="42.44431" lon="0.05433">
        <ele>798.9</ele>
        <time>2016-07-31T08:53:00Z</time>
      </trkpt>
      <trkpt lat="42.44431" lon="0.05437">
        <ele>799.3</ele>
        <time>2016-07-31T08:53:01Z</time>
      </trkpt>
      <trkpt lat="42.44431" lon="0.05442">
        <ele>799.2</ele>
        <time>2016-07-31T08:53:02Z</time>
      </trkpt>
      <trkpt lat="42.44433" lon="0.05447">
        <ele>798.4</ele>
        <time>2016-07-31T08:53:04Z</time>
      </trkpt>
      <trkpt lat="42.44435" lon="0.05452">
        <ele>797.2</ele>
        <time>2016-07-31T08:53:06Z</time>
      </trkpt>
      <trkpt lat="42.44436" lon="0.05456">
        <ele>796.2</ele>
        <time>2016-07-31T08:53:07Z</time>
      </trkpt>
      <trkpt lat="42.44438" lon="0.05459">
        <ele>795.2</ele>
        <time>2016-07-31T08:53:08Z</time>
      </trkpt>
      <trkpt lat="42.44439" lon="0.05463">
        <ele>794.6</ele>
        <time>2016-07-31T08:53:09Z</time>
      </trkpt>
      <trkpt lat="42.44441" lon="0.05466">
        <ele>794</ele>
        <time>2016-07-31T08:53:10Z</time>
      </trkpt>
      <trkpt lat="42.44443" lon="0.05472">
        <ele>793.2</ele>
        <time>2016-07-31T08:53:12Z</time>
      </trkpt>
      <trkpt lat="42.44444" lon="0.05477">
        <ele>792.7</ele>
        <time>2016-07-31T08:53:14Z</time>
      </trkpt>
      <trkpt lat="42.44446" lon="0.05481">
        <ele>792.1</ele>
        <time>2016-07-31T08:53:15Z</time>
      </trkpt>
      <trkpt lat="42.44447" lon="0.05484">
        <ele>791.2</ele>
        <time>2016-07-31T08:53:16Z</time>
      </trkpt>
      <trkpt lat="42.44451" lon="0.05491">
        <ele>788.8</ele>
        <time>2016-07-31T08:53:18Z</time>
      </trkpt>
      <trkpt lat="42.44455" lon="0.05495">
        <ele>786.6</ele>
        <time>2016-07-31T08:53:19Z</time>
      </trkpt>
      <trkpt lat="42.44459" lon="0.055">
        <ele>784.3</ele>
        <time>2016-07-31T08:53:20Z</time>
      </trkpt>
      <trkpt lat="42.44462" lon="0.05505">
        <ele>782</ele>
        <time>2016-07-31T08:53:21Z</time>
      </trkpt>
      <trkpt lat="42.44465" lon="0.05508">
        <ele>780.5</ele>
        <time>2016-07-31T08:53:22Z</time>
      </trkpt>
      <trkpt lat="42.44467" lon="0.05511">
        <ele>779</ele>
        <time>2016-07-31T08:53:23Z</time>
      </trkpt>
      <trkpt lat="42.44469" lon="0.05514">
        <ele>777.4</ele>
        <time>2016-07-31T08:53:24Z</time>
      </trkpt>
      <trkpt lat="42.44472" lon="0.05518">
        <ele>775.9</ele>
        <time>2016-07-31T08:53:25Z</time>
      </trkpt>
      <trkpt lat="42.44474" lon="0.05523">
        <ele>775</ele>
        <time>2016-07-31T08:53:26Z</time>
      </trkpt>
      <trkpt lat="42.44476" lon="0.05527">
        <ele>774.1</ele>
        <time>2016-07-31T08:53:27Z</time>
      </trkpt>
      <trkpt lat="42.44479" lon="0.05533">
        <ele>772.1</ele>
        <time>2016-07-31T08:53:29Z</time>
      </trkpt>
      <trkpt lat="42.44482" lon="0.05537">
        <ele>770.3</ele>
        <time>2016-07-31T08:53:30Z</time>
      </trkpt>
      <trkpt lat="42.44485" lon="0.05542">
        <ele>768.9</ele>
        <time>2016-07-31T08:53:31Z</time>
      </trkpt>
      <trkpt lat="42.44487" lon="0.05547">
        <ele>767.7</ele>
        <time>2016-07-31T08:53:32Z</time>
      </trkpt>
      <trkpt lat="42.44489" lon="0.05553">
        <ele>766.8</ele>
        <time>2016-07-31T08:53:33Z</time>
      </trkpt>
      <trkpt lat="42.44492" lon="0.05558">
        <ele>765.9</ele>
        <time>2016-07-31T08:53:34Z</time>
      </trkpt>
      <trkpt lat="42.44494" lon="0.05563">
        <ele>764.9</ele>
        <time>2016-07-31T08:53:35Z</time>
      </trkpt>
      <trkpt lat="42.44496" lon="0.05568">
        <ele>763.9</ele>
        <time>2016-07-31T08:53:36Z</time>
      </trkpt>
      <trkpt lat="42.44499" lon="0.05572">
        <ele>762.7</ele>
        <time>2016-07-31T08:53:37Z</time>
      </trkpt>
      <trkpt lat="42.44502" lon="0.05577">
        <ele>761.1</ele>
        <time>2016-07-31T08:53:38Z</time>
      </trkpt>
      <trkpt lat="42.44505" lon="0.05581">
        <ele>759.4</ele>
        <time>2016-07-31T08:53:39Z</time>
      </trkpt>
      <trkpt lat="42.44509" lon="0.05585">
        <ele>757.6</ele>
        <time>2016-07-31T08:53:40Z</time>
      </trkpt>
      <trkpt lat="42.44512" lon="0.0559">
        <ele>756.2</ele>
        <time>2016-07-31T08:53:41Z</time>
      </trkpt>
      <trkpt lat="42.44515" lon="0.05595">
        <ele>754.8</ele>
        <time>2016-07-31T08:53:42Z</time>
      </trkpt>
      <trkpt lat="42.44518" lon="0.05599">
        <ele>753.5</ele>
        <time>2016-07-31T08:53:43Z</time>
      </trkpt>
      <trkpt lat="42.44521" lon="0.05604">
        <ele>752.2</ele>
        <time>2016-07-31T08:53:44Z</time>
      </trkpt>
      <trkpt lat="42.44523" lon="0.0561">
        <ele>751.8</ele>
        <time>2016-07-31T08:53:45Z</time>
      </trkpt>
      <trkpt lat="42.44525" lon="0.05616">
        <ele>752</ele>
        <time>2016-07-31T08:53:46Z</time>
      </trkpt>
      <trkpt lat="42.44526" lon="0.05623">
        <ele>752.6</ele>
        <time>2016-07-31T08:53:47Z</time>
      </trkpt>
      <trkpt lat="42.44527" lon="0.05628">
        <ele>752.5</ele>
        <time>2016-07-31T08:53:48Z</time>
      </trkpt>
      <trkpt lat="42.44528" lon="0.05632">
        <ele>751.9</ele>
        <time>2016-07-31T08:53:49Z</time>
      </trkpt>
      <trkpt lat="42.44529" lon="0.05636">
        <ele>751.4</ele>
        <time>2016-07-31T08:53:50Z</time>
      </trkpt>
      <trkpt lat="42.44531" lon="0.0564">
        <ele>750.6</ele>
        <time>2016-07-31T08:53:51Z</time>
      </trkpt>
      <trkpt lat="42.44532" lon="0.05644">
        <ele>749.6</ele>
        <time>2016-07-31T08:53:52Z</time>
      </trkpt>
      <trkpt lat="42.44534" lon="0.05649">
        <ele>749.1</ele>
        <time>2016-07-31T08:53:53Z</time>
      </trkpt>
      <trkpt lat="42.44534" lon="0.05653">
        <ele>749.2</ele>
        <time>2016-07-31T08:53:54Z</time>
      </trkpt>
      <trkpt lat="42.44533" lon="0.05658">
        <ele>749.8</ele>
        <time>2016-07-31T08:53:55Z</time>
      </trkpt>
      <trkpt lat="42.44533" lon="0.05662">
        <ele>750.6</ele>
        <time>2016-07-31T08:53:56Z</time>
      </trkpt>
      <trkpt lat="42.44532" lon="0.05667">
        <ele>751</ele>
        <time>2016-07-31T08:53:57Z</time>
      </trkpt>
      <trkpt lat="42.44532" lon="0.05672">
        <ele>751.5</ele>
        <time>2016-07-31T08:53:58Z</time>
      </trkpt>
      <trkpt lat="42.44532" lon="0.05676">
        <ele>751.8</ele>
        <time>2016-07-31T08:53:59Z</time>
      </trkpt>
      <trkpt lat="42.44532" lon="0.0568">
        <ele>752.1</ele>
        <time>2016-07-31T08:54:00Z</time>
      </trkpt>
      <trkpt lat="42.44531" lon="0.05686">
        <ele>753.2</ele>
        <time>2016-07-31T08:54:02Z</time>
      </trkpt>
      <trkpt lat="42.4453" lon="0.05691">
        <ele>754.1</ele>
        <time>2016-07-31T08:54:04Z</time>
      </trkpt>
      <trkpt lat="42.4453" lon="0.05697">
        <ele>754.1</ele>
        <time>2016-07-31T08:54:06Z</time>
      </trkpt>
      <trkpt lat="42.44531" lon="0.057">
        <ele>753.9</ele>
        <time>2016-07-31T08:54:07Z</time>
      </trkpt>
      <trkpt lat="42.44532" lon="0.05706">
        <ele>753.3</ele>
        <time>2016-07-31T08:54:09Z</time>
      </trkpt>
      <trkpt lat="42.44534" lon="0.05713">
        <ele>751.9</ele>
        <time>2016-07-31T08:54:11Z</time>
      </trkpt>
      <trkpt lat="42.44534" lon="0.05718">
        <ele>751.1</ele>
        <time>2016-07-31T08:54:12Z</time>
      </trkpt>
      <trkpt lat="42.44533" lon="0.05723">
        <ele>750.5</ele>
        <time>2016-07-31T08:54:13Z</time>
      </trkpt>
      <trkpt lat="42.44532" lon="0.0573">
        <ele>750</ele>
        <time>2016-07-31T08:54:14Z</time>
      </trkpt>
      <trkpt lat="42.4453" lon="0.05738">
        <ele>749.9</ele>
        <time>2016-07-31T08:54:15Z</time>
      </trkpt>
      <trkpt lat="42.44529" lon="0.05745">
        <ele>749.8</ele>
        <time>2016-07-31T08:54:16Z</time>
      </trkpt>
      <trkpt lat="42.44527" lon="0.05753">
        <ele>749.5</ele>
        <time>2016-07-31T08:54:17Z</time>
      </trkpt>
      <trkpt lat="42.44525" lon="0.05761">
        <ele>749.3</ele>
        <time>2016-07-31T08:54:18Z</time>
      </trkpt>
      <trkpt lat="42.44524" lon="0.0577">
        <ele>749</ele>
        <time>2016-07-31T08:54:19Z</time>
      </trkpt>
      <trkpt lat="42.44522" lon="0.05777">
        <ele>748.9</ele>
        <time>2016-07-31T08:54:20Z</time>
      </trkpt>
      <trkpt lat="42.4452" lon="0.05785">
        <ele>748.8</ele>
        <time>2016-07-31T08:54:21Z</time>
      </trkpt>
      <trkpt lat="42.44518" lon="0.05792">
        <ele>748.8</ele>
        <time>2016-07-31T08:54:22Z</time>
      </trkpt>
      <trkpt lat="42.44517" lon="0.05798">
        <ele>748.1</ele>
        <time>2016-07-31T08:54:23Z</time>
      </trkpt>
      <trkpt lat="42.44514" lon="0.05805">
        <ele>747.8</ele>
        <time>2016-07-31T08:54:24Z</time>
      </trkpt>
      <trkpt lat="42.44512" lon="0.0581">
        <ele>747.9</ele>
        <time>2016-07-31T08:54:25Z</time>
      </trkpt>
      <trkpt lat="42.4451" lon="0.05814">
        <ele>748.3</ele>
        <time>2016-07-31T08:54:26Z</time>
      </trkpt>
      <trkpt lat="42.44507" lon="0.05818">
        <ele>749</ele>
        <time>2016-07-31T08:54:27Z</time>
      </trkpt>
      <trkpt lat="42.44505" lon="0.0582">
        <ele>749.9</ele>
        <time>2016-07-31T08:54:28Z</time>
      </trkpt>
      <trkpt lat="42.44501" lon="0.05827">
        <ele>750.9</ele>
        <time>2016-07-31T08:54:30Z</time>
      </trkpt>
      <trkpt lat="42.445" lon="0.05831">
        <ele>750.7</ele>
        <time>2016-07-31T08:54:31Z</time>
      </trkpt>
      <trkpt lat="42.44499" lon="0.05836">
        <ele>750.4</ele>
        <time>2016-07-31T08:54:32Z</time>
      </trkpt>
      <trkpt lat="42.44498" lon="0.0584">
        <ele>750</ele>
        <time>2016-07-31T08:54:33Z</time>
      </trkpt>
      <trkpt lat="42.44497" lon="0.05845">
        <ele>749.5</ele>
        <time>2016-07-31T08:54:34Z</time>
      </trkpt>
      <trkpt lat="42.44495" lon="0.0585">
        <ele>749.1</ele>
        <time>2016-07-31T08:54:35Z</time>
      </trkpt>
      <trkpt lat="42.44495" lon="0.05854">
        <ele>748.8</ele>
        <time>2016-07-31T08:54:36Z</time>
      </trkpt>
      <trkpt lat="42.44493" lon="0.05859">
        <ele>748.6</ele>
        <time>2016-07-31T08:54:38Z</time>
      </trkpt>
      <trkpt lat="42.44492" lon="0.05865">
        <ele>748</ele>
        <time>2016-07-31T08:54:40Z</time>
      </trkpt>
      <trkpt lat="42.44492" lon="0.0587">
        <ele>746.6</ele>
        <time>2016-07-31T08:54:42Z</time>
      </trkpt>
      <trkpt lat="42.4449" lon="0.05874">
        <ele>747.3</ele>
        <time>2016-07-31T08:55:18Z</time>
      </trkpt>
      <trkpt lat="42.44489" lon="0.05878">
        <ele>747.1</ele>
        <time>2016-07-31T08:55:19Z</time>
      </trkpt>
      <trkpt lat="42.44487" lon="0.05881">
        <ele>746.9</ele>
        <time>2016-07-31T08:55:20Z</time>
      </trkpt>
      <trkpt lat="42.44485" lon="0.05884">
        <ele>747.2</ele>
        <time>2016-07-31T08:55:22Z</time>
      </trkpt>
      <trkpt lat="42.44483" lon="0.05886">
        <ele>748.2</ele>
        <time>2016-07-31T08:55:24Z</time>
      </trkpt>
      <trkpt lat="42.44487" lon="0.05887">
        <ele>745</ele>
        <time>2016-07-31T08:55:31Z</time>
      </trkpt>
      <trkpt lat="42.4449" lon="0.05886">
        <ele>742.6</ele>
        <time>2016-07-31T08:55:34Z</time>
      </trkpt>
      <trkpt lat="42.44491" lon="0.0589">
        <ele>740.6</ele>
        <time>2016-07-31T08:55:37Z</time>
      </trkpt>
      <trkpt lat="42.44488" lon="0.05896">
        <ele>740.1</ele>
        <time>2016-07-31T08:55:39Z</time>
      </trkpt>
      <trkpt lat="42.44487" lon="0.05898">
        <ele>740.3</ele>
        <time>2016-07-31T08:55:40Z</time>
      </trkpt>
      <trkpt lat="42.44483" lon="0.05903">
        <ele>741.2</ele>
        <time>2016-07-31T08:55:42Z</time>
      </trkpt>
      <trkpt lat="42.44481" lon="0.05905">
        <ele>742.1</ele>
        <time>2016-07-31T08:55:44Z</time>
      </trkpt>
      <trkpt lat="42.44479" lon="0.05909">
        <ele>741.2</ele>
        <time>2016-07-31T08:55:46Z</time>
      </trkpt>
      <trkpt lat="42.44479" lon="0.05915">
        <ele>739.3</ele>
        <time>2016-07-31T08:55:48Z</time>
      </trkpt>
      <trkpt lat="42.44479" lon="0.0592">
        <ele>736.9</ele>
        <time>2016-07-31T08:55:53Z</time>
      </trkpt>
      <trkpt lat="42.44479" lon="0.05925">
        <ele>735.3</ele>
        <time>2016-07-31T08:55:56Z</time>
      </trkpt>
      <trkpt lat="42.44478" lon="0.05929">
        <ele>734.1</ele>
        <time>2016-07-31T08:56:13Z</time>
      </trkpt>
      <trkpt lat="42.44477" lon="0.05933">
        <ele>733.5</ele>
        <time>2016-07-31T08:56:21Z</time>
      </trkpt>
      <trkpt lat="42.44478" lon="0.05936">
        <ele>731.7</ele>
        <time>2016-07-31T08:56:28Z</time>
      </trkpt>
      <trkpt lat="42.44478" lon="0.05941">
        <ele>729.3</ele>
        <time>2016-07-31T08:56:32Z</time>
      </trkpt>
      <trkpt lat="42.44479" lon="0.05945">
        <ele>727</ele>
        <time>2016-07-31T08:56:43Z</time>
      </trkpt>
      <trkpt lat="42.44481" lon="0.05947">
        <ele>724.3</ele>
        <time>2016-07-31T08:56:52Z</time>
      </trkpt>
      <trkpt lat="42.44481" lon="0.05951">
        <ele>722.8</ele>
        <time>2016-07-31T08:56:58Z</time>
      </trkpt>
      <trkpt lat="42.4448" lon="0.05955">
        <ele>722.3</ele>
        <time>2016-07-31T08:57:06Z</time>
      </trkpt>
      <trkpt lat="42.44479" lon="0.05958">
        <ele>721.8</ele>
        <time>2016-07-31T08:57:12Z</time>
      </trkpt>
      <trkpt lat="42.44477" lon="0.05961">
        <ele>722.1</ele>
        <time>2016-07-31T08:57:16Z</time>
      </trkpt>
      <trkpt lat="42.44476" lon="0.05968">
        <ele>721.6</ele>
        <time>2016-07-31T08:57:18Z</time>
      </trkpt>
      <trkpt lat="42.44475" lon="0.05972">
        <ele>721</ele>
        <time>2016-07-31T08:57:19Z</time>
      </trkpt>
      <trkpt lat="42.44474" lon="0.05977">
        <ele>720.4</ele>
        <time>2016-07-31T08:57:20Z</time>
      </trkpt>
      <trkpt lat="42.44473" lon="0.05982">
        <ele>720</ele>
        <time>2016-07-31T08:57:21Z</time>
      </trkpt>
      <trkpt lat="42.44472" lon="0.05986">
        <ele>719.6</ele>
        <time>2016-07-31T08:57:22Z</time>
      </trkpt>
      <trkpt lat="42.44471" lon="0.05991">
        <ele>719.4</ele>
        <time>2016-07-31T08:57:23Z</time>
      </trkpt>
      <trkpt lat="42.44469" lon="0.05995">
        <ele>719.4</ele>
        <time>2016-07-31T08:57:24Z</time>
      </trkpt>
      <trkpt lat="42.44468" lon="0.06">
        <ele>719.4</ele>
        <time>2016-07-31T08:57:26Z</time>
      </trkpt>
      <trkpt lat="42.44468" lon="0.06004">
        <ele>718.3</ele>
        <time>2016-07-31T08:57:31Z</time>
      </trkpt>
      <trkpt lat="42.4447" lon="0.06002">
        <ele>716.6</ele>
        <time>2016-07-31T08:57:39Z</time>
      </trkpt>
      <trkpt lat="42.44476" lon="0.05999">
        <ele>713.1</ele>
        <time>2016-07-31T08:57:41Z</time>
      </trkpt>
      <trkpt lat="42.4448" lon="0.05998">
        <ele>710.7</ele>
        <time>2016-07-31T08:57:42Z</time>
      </trkpt>
      <trkpt lat="42.44483" lon="0.05996">
        <ele>708.8</ele>
        <time>2016-07-31T08:57:43Z</time>
      </trkpt>
      <trkpt lat="42.44485" lon="0.05995">
        <ele>707.2</ele>
        <time>2016-07-31T08:57:44Z</time>
      </trkpt>
      <trkpt lat="42.4449" lon="0.05992">
        <ele>704.6</ele>
        <time>2016-07-31T08:57:46Z</time>
      </trkpt>
      <trkpt lat="42.44492" lon="0.05989">
        <ele>703.6</ele>
        <time>2016-07-31T08:57:49Z</time>
      </trkpt>
      <trkpt lat="42.44495" lon="0.0599">
        <ele>701</ele>
        <time>2016-07-31T08:57:54Z</time>
      </trkpt>
      <trkpt lat="42.44496" lon="0.05994">
        <ele>699.1</ele>
        <time>2016-07-31T08:58:02Z</time>
      </trkpt>
      <trkpt lat="42.44499" lon="0.05993">
        <ele>697.4</ele>
        <time>2016-07-31T08:58:07Z</time>
      </trkpt>
      <trkpt lat="42.44499" lon="0.05998">
        <ele>695.6</ele>
        <time>2016-07-31T08:58:15Z</time>
      </trkpt>
      <trkpt lat="42.44498" lon="0.06003">
        <ele>695.3</ele>
        <time>2016-07-31T08:58:16Z</time>
      </trkpt>
      <trkpt lat="42.44497" lon="0.06008">
        <ele>694.6</ele>
        <time>2016-07-31T08:58:17Z</time>
      </trkpt>
      <trkpt lat="42.44496" lon="0.06013">
        <ele>693.9</ele>
        <time>2016-07-31T08:58:18Z</time>
      </trkpt>
      <trkpt lat="42.44495" lon="0.06019">
        <ele>692.8</ele>
        <time>2016-07-31T08:58:19Z</time>
      </trkpt>
      <trkpt lat="42.44494" lon="0.06025">
        <ele>691.9</ele>
        <time>2016-07-31T08:58:20Z</time>
      </trkpt>
      <trkpt lat="42.44493" lon="0.06031">
        <ele>691.5</ele>
        <time>2016-07-31T08:58:21Z</time>
      </trkpt>
      <trkpt lat="42.44492" lon="0.06035">
        <ele>691.3</ele>
        <time>2016-07-31T08:58:22Z</time>
      </trkpt>
      <trkpt lat="42.4449" lon="0.06038">
        <ele>691.3</ele>
        <time>2016-07-31T08:58:23Z</time>
      </trkpt>
      <trkpt lat="42.44489" lon="0.06042">
        <ele>691.3</ele>
        <time>2016-07-31T08:58:24Z</time>
      </trkpt>
      <trkpt lat="42.44488" lon="0.06046">
        <ele>691</ele>
        <time>2016-07-31T08:58:25Z</time>
      </trkpt>
      <trkpt lat="42.44487" lon="0.06049">
        <ele>690.9</ele>
        <time>2016-07-31T08:58:26Z</time>
      </trkpt>
      <trkpt lat="42.44486" lon="0.06053">
        <ele>690.7</ele>
        <time>2016-07-31T08:58:27Z</time>
      </trkpt>
      <trkpt lat="42.44485" lon="0.06057">
        <ele>690.3</ele>
        <time>2016-07-31T08:58:28Z</time>
      </trkpt>
      <trkpt lat="42.44485" lon="0.06061">
        <ele>689.7</ele>
        <time>2016-07-31T08:58:29Z</time>
      </trkpt>
      <trkpt lat="42.44484" lon="0.06066">
        <ele>688.9</ele>
        <time>2016-07-31T08:58:30Z</time>
      </trkpt>
      <trkpt lat="42.44484" lon="0.0607">
        <ele>687.3</ele>
        <time>2016-07-31T08:58:31Z</time>
      </trkpt>
      <trkpt lat="42.44485" lon="0.06076">
        <ele>685.2</ele>
        <time>2016-07-31T08:58:32Z</time>
      </trkpt>
      <trkpt lat="42.44486" lon="0.06081">
        <ele>683</ele>
        <time>2016-07-31T08:58:33Z</time>
      </trkpt>
      <trkpt lat="42.44487" lon="0.06086">
        <ele>681.1</ele>
        <time>2016-07-31T08:58:34Z</time>
      </trkpt>
      <trkpt lat="42.44488" lon="0.0609">
        <ele>679.3</ele>
        <time>2016-07-31T08:58:35Z</time>
      </trkpt>
      <trkpt lat="42.44489" lon="0.06094">
        <ele>677.5</ele>
        <time>2016-07-31T08:58:36Z</time>
      </trkpt>
      <trkpt lat="42.44491" lon="0.06098">
        <ele>675.2</ele>
        <time>2016-07-31T08:58:37Z</time>
      </trkpt>
      <trkpt lat="42.44492" lon="0.06101">
        <ele>672.9</ele>
        <time>2016-07-31T08:58:38Z</time>
      </trkpt>
      <trkpt lat="42.44494" lon="0.06105">
        <ele>670.7</ele>
        <time>2016-07-31T08:58:39Z</time>
      </trkpt>
      <trkpt lat="42.44495" lon="0.06109">
        <ele>669</ele>
        <time>2016-07-31T08:58:40Z</time>
      </trkpt>
      <trkpt lat="42.44496" lon="0.06114">
        <ele>666.5</ele>
        <time>2016-07-31T08:58:42Z</time>
      </trkpt>
      <trkpt lat="42.44502" lon="0.06115">
        <ele>662.3</ele>
        <time>2016-07-31T08:58:44Z</time>
      </trkpt>
      <trkpt lat="42.44505" lon="0.06115">
        <ele>660.3</ele>
        <time>2016-07-31T08:58:45Z</time>
      </trkpt>
      <trkpt lat="42.44508" lon="0.06115">
        <ele>657.6</ele>
        <time>2016-07-31T08:58:47Z</time>
      </trkpt>
      <trkpt lat="42.44507" lon="0.06119">
        <ele>657</ele>
        <time>2016-07-31T08:58:53Z</time>
      </trkpt>
      <trkpt lat="42.44507" lon="0.06123">
        <ele>656.5</ele>
        <time>2016-07-31T08:58:56Z</time>
      </trkpt>
      <trkpt lat="42.4451" lon="0.06123">
        <ele>654.2</ele>
        <time>2016-07-31T08:59:04Z</time>
      </trkpt>
      <trkpt lat="42.44511" lon="0.06127">
        <ele>652.5</ele>
        <time>2016-07-31T08:59:07Z</time>
      </trkpt>
      <trkpt lat="42.44511" lon="0.06132">
        <ele>651.6</ele>
        <time>2016-07-31T08:59:10Z</time>
      </trkpt>
      <trkpt lat="42.44508" lon="0.06133">
        <ele>653</ele>
        <time>2016-07-31T08:59:14Z</time>
      </trkpt>
      <trkpt lat="42.44506" lon="0.06134">
        <ele>654.8</ele>
        <time>2016-07-31T08:59:17Z</time>
      </trkpt>
      <trkpt lat="42.44503" lon="0.06137">
        <ele>655.7</ele>
        <time>2016-07-31T08:59:19Z</time>
      </trkpt>
      <trkpt lat="42.44502" lon="0.06143">
        <ele>655.2</ele>
        <time>2016-07-31T08:59:21Z</time>
      </trkpt>
      <trkpt lat="42.44502" lon="0.06147">
        <ele>654.6</ele>
        <time>2016-07-31T08:59:22Z</time>
      </trkpt>
      <trkpt lat="42.44502" lon="0.06154">
        <ele>653.1</ele>
        <time>2016-07-31T08:59:24Z</time>
      </trkpt>
      <trkpt lat="42.44502" lon="0.06158">
        <ele>652</ele>
        <time>2016-07-31T08:59:25Z</time>
      </trkpt>
      <trkpt lat="42.44502" lon="0.06163">
        <ele>650.9</ele>
        <time>2016-07-31T08:59:26Z</time>
      </trkpt>
      <trkpt lat="42.44502" lon="0.06167">
        <ele>649.9</ele>
        <time>2016-07-31T08:59:27Z</time>
      </trkpt>
      <trkpt lat="42.44502" lon="0.06171">
        <ele>649</ele>
        <time>2016-07-31T08:59:28Z</time>
      </trkpt>
      <trkpt lat="42.44502" lon="0.06175">
        <ele>647.8</ele>
        <time>2016-07-31T08:59:29Z</time>
      </trkpt>
      <trkpt lat="42.44502" lon="0.0618">
        <ele>646.8</ele>
        <time>2016-07-31T08:59:30Z</time>
      </trkpt>
      <trkpt lat="42.44502" lon="0.06184">
        <ele>645.7</ele>
        <time>2016-07-31T08:59:31Z</time>
      </trkpt>
      <trkpt lat="42.44502" lon="0.06189">
        <ele>644.9</ele>
        <time>2016-07-31T08:59:32Z</time>
      </trkpt>
      <trkpt lat="42.44501" lon="0.06195">
        <ele>644.1</ele>
        <time>2016-07-31T08:59:34Z</time>
      </trkpt>
      <trkpt lat="42.44499" lon="0.06202">
        <ele>643.6</ele>
        <time>2016-07-31T08:59:36Z</time>
      </trkpt>
      <trkpt lat="42.44497" lon="0.0621">
        <ele>643.1</ele>
        <time>2016-07-31T08:59:38Z</time>
      </trkpt>
      <trkpt lat="42.44495" lon="0.06215">
        <ele>642.6</ele>
        <time>2016-07-31T08:59:39Z</time>
      </trkpt>
      <trkpt lat="42.44494" lon="0.0622">
        <ele>641.8</ele>
        <time>2016-07-31T08:59:40Z</time>
      </trkpt>
      <trkpt lat="42.44493" lon="0.06226">
        <ele>640.9</ele>
        <time>2016-07-31T08:59:41Z</time>
      </trkpt>
      <trkpt lat="42.44492" lon="0.06231">
        <ele>639.9</ele>
        <time>2016-07-31T08:59:42Z</time>
      </trkpt>
      <trkpt lat="42.44492" lon="0.06235">
        <ele>639</ele>
        <time>2016-07-31T08:59:43Z</time>
      </trkpt>
      <trkpt lat="42.44491" lon="0.06239">
        <ele>638.2</ele>
        <time>2016-07-31T08:59:44Z</time>
      </trkpt>
      <trkpt lat="42.4449" lon="0.06244">
        <ele>637.1</ele>
        <time>2016-07-31T08:59:45Z</time>
      </trkpt>
      <trkpt lat="42.4449" lon="0.06249">
        <ele>635.9</ele>
        <time>2016-07-31T08:59:46Z</time>
      </trkpt>
      <trkpt lat="42.4449" lon="0.06255">
        <ele>634.4</ele>
        <time>2016-07-31T08:59:47Z</time>
      </trkpt>
      <trkpt lat="42.4449" lon="0.06258">
        <ele>633.2</ele>
        <time>2016-07-31T08:59:48Z</time>
      </trkpt>
      <trkpt lat="42.44492" lon="0.06262">
        <ele>631.4</ele>
        <time>2016-07-31T08:59:49Z</time>
      </trkpt>
      <trkpt lat="42.44494" lon="0.06264">
        <ele>629.5</ele>
        <time>2016-07-31T08:59:50Z</time>
      </trkpt>
      <trkpt lat="42.44497" lon="0.06269">
        <ele>627</ele>
        <time>2016-07-31T08:59:52Z</time>
      </trkpt>
      <trkpt lat="42.44495" lon="0.06272">
        <ele>626.8</ele>
        <time>2016-07-31T08:59:57Z</time>
      </trkpt>
      <trkpt lat="42.44494" lon="0.06277">
        <ele>626.3</ele>
        <time>2016-07-31T08:59:59Z</time>
      </trkpt>
      <trkpt lat="42.44492" lon="0.06283">
        <ele>625.3</ele>
        <time>2016-07-31T09:00:01Z</time>
      </trkpt>
      <trkpt lat="42.44491" lon="0.06286">
        <ele>624.8</ele>
        <time>2016-07-31T09:00:02Z</time>
      </trkpt>
      <trkpt lat="42.4449" lon="0.0629">
        <ele>624.1</ele>
        <time>2016-07-31T09:00:03Z</time>
      </trkpt>
      <trkpt lat="42.44488" lon="0.06295">
        <ele>623.8</ele>
        <time>2016-07-31T09:00:04Z</time>
      </trkpt>
      <trkpt lat="42.44486" lon="0.06301">
        <ele>623.6</ele>
        <time>2016-07-31T09:00:05Z</time>
      </trkpt>
      <trkpt lat="42.44484" lon="0.06306">
        <ele>623.4</ele>
        <time>2016-07-31T09:00:06Z</time>
      </trkpt>
      <trkpt lat="42.44482" lon="0.06311">
        <ele>623.1</ele>
        <time>2016-07-31T09:00:07Z</time>
      </trkpt>
      <trkpt lat="42.4448" lon="0.06315">
        <ele>622.8</ele>
        <time>2016-07-31T09:00:08Z</time>
      </trkpt>
      <trkpt lat="42.44478" lon="0.0632">
        <ele>622.6</ele>
        <time>2016-07-31T09:00:09Z</time>
      </trkpt>
      <trkpt lat="42.44476" lon="0.06325">
        <ele>622</ele>
        <time>2016-07-31T09:00:10Z</time>
      </trkpt>
      <trkpt lat="42.44474" lon="0.0633">
        <ele>621.4</ele>
        <time>2016-07-31T09:00:11Z</time>
      </trkpt>
      <trkpt lat="42.44472" lon="0.06335">
        <ele>620.7</ele>
        <time>2016-07-31T09:00:12Z</time>
      </trkpt>
      <trkpt lat="42.44471" lon="0.06341">
        <ele>619.8</ele>
        <time>2016-07-31T09:00:13Z</time>
      </trkpt>
      <trkpt lat="42.44469" lon="0.06347">
        <ele>618.8</ele>
        <time>2016-07-31T09:00:14Z</time>
      </trkpt>
      <trkpt lat="42.44467" lon="0.06354">
        <ele>617.7</ele>
        <time>2016-07-31T09:00:15Z</time>
      </trkpt>
      <trkpt lat="42.44465" lon="0.0636">
        <ele>616.5</ele>
        <time>2016-07-31T09:00:16Z</time>
      </trkpt>
      <trkpt lat="42.44463" lon="0.06366">
        <ele>615.2</ele>
        <time>2016-07-31T09:00:17Z</time>
      </trkpt>
      <trkpt lat="42.44462" lon="0.06373">
        <ele>614</ele>
        <time>2016-07-31T09:00:18Z</time>
      </trkpt>
      <trkpt lat="42.4446" lon="0.06379">
        <ele>613</ele>
        <time>2016-07-31T09:00:19Z</time>
      </trkpt>
      <trkpt lat="42.44459" lon="0.06384">
        <ele>612.3</ele>
        <time>2016-07-31T09:00:20Z</time>
      </trkpt>
      <trkpt lat="42.44457" lon="0.0639">
        <ele>611.7</ele>
        <time>2016-07-31T09:00:21Z</time>
      </trkpt>
      <trkpt lat="42.44456" lon="0.06396">
        <ele>611.1</ele>
        <time>2016-07-31T09:00:22Z</time>
      </trkpt>
      <trkpt lat="42.44454" lon="0.06402">
        <ele>610.5</ele>
        <time>2016-07-31T09:00:23Z</time>
      </trkpt>
      <trkpt lat="42.44452" lon="0.06408">
        <ele>609.9</ele>
        <time>2016-07-31T09:00:24Z</time>
      </trkpt>
      <trkpt lat="42.44451" lon="0.06413">
        <ele>609.4</ele>
        <time>2016-07-31T09:00:25Z</time>
      </trkpt>
      <trkpt lat="42.44449" lon="0.06418">
        <ele>608.9</ele>
        <time>2016-07-31T09:00:26Z</time>
      </trkpt>
      <trkpt lat="42.44447" lon="0.06424">
        <ele>608.3</ele>
        <time>2016-07-31T09:00:27Z</time>
      </trkpt>
      <trkpt lat="42.44445" lon="0.06429">
        <ele>607.7</ele>
        <time>2016-07-31T09:00:28Z</time>
      </trkpt>
      <trkpt lat="42.44442" lon="0.06435">
        <ele>607</ele>
        <time>2016-07-31T09:00:29Z</time>
      </trkpt>
      <trkpt lat="42.4444" lon="0.06441">
        <ele>606.3</ele>
        <time>2016-07-31T09:00:30Z</time>
      </trkpt>
      <trkpt lat="42.44438" lon="0.06446">
        <ele>605.6</ele>
        <time>2016-07-31T09:00:31Z</time>
      </trkpt>
      <trkpt lat="42.44436" lon="0.06452">
        <ele>604.8</ele>
        <time>2016-07-31T09:00:32Z</time>
      </trkpt>
      <trkpt lat="42.44434" lon="0.06458">
        <ele>603.9</ele>
        <time>2016-07-31T09:00:33Z</time>
      </trkpt>
      <trkpt lat="42.44431" lon="0.06463">
        <ele>603.7</ele>
        <time>2016-07-31T09:00:34Z</time>
      </trkpt>
      <trkpt lat="42.44429" lon="0.06468">
        <ele>603.7</ele>
        <time>2016-07-31T09:00:35Z</time>
      </trkpt>
      <trkpt lat="42.44426" lon="0.06474">
        <ele>603.6</ele>
        <time>2016-07-31T09:00:36Z</time>
      </trkpt>
      <trkpt lat="42.44423" lon="0.06479">
        <ele>603.5</ele>
        <time>2016-07-31T09:00:37Z</time>
      </trkpt>
      <trkpt lat="42.4442" lon="0.06485">
        <ele>603.4</ele>
        <time>2016-07-31T09:00:38Z</time>
      </trkpt>
      <trkpt lat="42.44418" lon="0.0649">
        <ele>603.3</ele>
        <time>2016-07-31T09:00:39Z</time>
      </trkpt>
      <trkpt lat="42.44415" lon="0.06495">
        <ele>603.1</ele>
        <time>2016-07-31T09:00:40Z</time>
      </trkpt>
      <trkpt lat="42.44412" lon="0.06501">
        <ele>602.9</ele>
        <time>2016-07-31T09:00:41Z</time>
      </trkpt>
      <trkpt lat="42.44409" lon="0.06507">
        <ele>602.6</ele>
        <time>2016-07-31T09:00:42Z</time>
      </trkpt>
      <trkpt lat="42.44406" lon="0.06512">
        <ele>602.4</ele>
        <time>2016-07-31T09:00:43Z</time>
      </trkpt>
      <trkpt lat="42.44403" lon="0.06517">
        <ele>602.1</ele>
        <time>2016-07-31T09:00:44Z</time>
      </trkpt>
      <trkpt lat="42.444" lon="0.06522">
        <ele>601.9</ele>
        <time>2016-07-31T09:00:45Z</time>
      </trkpt>
      <trkpt lat="42.44397" lon="0.06527">
        <ele>601.6</ele>
        <time>2016-07-31T09:00:46Z</time>
      </trkpt>
      <trkpt lat="42.44395" lon="0.06531">
        <ele>601.3</ele>
        <time>2016-07-31T09:00:47Z</time>
      </trkpt>
      <trkpt lat="42.44392" lon="0.06535">
        <ele>601</ele>
        <time>2016-07-31T09:00:48Z</time>
      </trkpt>
      <trkpt lat="42.4439" lon="0.06539">
        <ele>600.8</ele>
        <time>2016-07-31T09:00:49Z</time>
      </trkpt>
      <trkpt lat="42.44387" lon="0.06543">
        <ele>600.6</ele>
        <time>2016-07-31T09:00:51Z</time>
      </trkpt>
      <trkpt lat="42.44381" lon="0.06545">
        <ele>601.1</ele>
        <time>2016-07-31T09:00:53Z</time>
      </trkpt>
      <trkpt lat="42.44377" lon="0.06544">
        <ele>601.6</ele>
        <time>2016-07-31T09:00:54Z</time>
      </trkpt>
      <trkpt lat="42.44374" lon="0.06544">
        <ele>602</ele>
        <time>2016-07-31T09:00:55Z</time>
      </trkpt>
      <trkpt lat="42.4437" lon="0.06544">
        <ele>602.2</ele>
        <time>2016-07-31T09:00:56Z</time>
      </trkpt>
      <trkpt lat="42.44366" lon="0.06545">
        <ele>602.4</ele>
        <time>2016-07-31T09:00:57Z</time>
      </trkpt>
      <trkpt lat="42.44361" lon="0.06547">
        <ele>602.6</ele>
        <time>2016-07-31T09:00:58Z</time>
      </trkpt>
      <trkpt lat="42.44357" lon="0.06549">
        <ele>602.8</ele>
        <time>2016-07-31T09:00:59Z</time>
      </trkpt>
      <trkpt lat="42.44353" lon="0.06551">
        <ele>602.9</ele>
        <time>2016-07-31T09:01:00Z</time>
      </trkpt>
      <trkpt lat="42.44349" lon="0.06553">
        <ele>603</ele>
        <time>2016-07-31T09:01:01Z</time>
      </trkpt>
      <trkpt lat="42.44345" lon="0.06555">
        <ele>603.1</ele>
        <time>2016-07-31T09:01:02Z</time>
      </trkpt>
      <trkpt lat="42.44342" lon="0.06558">
        <ele>603.2</ele>
        <time>2016-07-31T09:01:03Z</time>
      </trkpt>
      <trkpt lat="42.44338" lon="0.0656">
        <ele>603.2</ele>
        <time>2016-07-31T09:01:04Z</time>
      </trkpt>
      <trkpt lat="42.44335" lon="0.06563">
        <ele>603.2</ele>
        <time>2016-07-31T09:01:05Z</time>
      </trkpt>
      <trkpt lat="42.44332" lon="0.06565">
        <ele>603.3</ele>
        <time>2016-07-31T09:01:06Z</time>
      </trkpt>
      <trkpt lat="42.44329" lon="0.06567">
        <ele>603.3</ele>
        <time>2016-07-31T09:01:07Z</time>
      </trkpt>
      <trkpt lat="42.44324" lon="0.06569">
        <ele>603.6</ele>
        <time>2016-07-31T09:01:09Z</time>
      </trkpt>
      <trkpt lat="42.44319" lon="0.06569">
        <ele>603.9</ele>
        <time>2016-07-31T09:01:11Z</time>
      </trkpt>
      <trkpt lat="42.44314" lon="0.06569">
        <ele>604.1</ele>
        <time>2016-07-31T09:01:13Z</time>
      </trkpt>
      <trkpt lat="42.4431" lon="0.06567">
        <ele>604.6</ele>
        <time>2016-07-31T09:01:15Z</time>
      </trkpt>
      <trkpt lat="42.44307" lon="0.06561">
        <ele>605.3</ele>
        <time>2016-07-31T09:01:17Z</time>
      </trkpt>
      <trkpt lat="42.44306" lon="0.06557">
        <ele>605.7</ele>
        <time>2016-07-31T09:01:18Z</time>
      </trkpt>
      <trkpt lat="42.44305" lon="0.06553">
        <ele>606.1</ele>
        <time>2016-07-31T09:01:19Z</time>
      </trkpt>
      <trkpt lat="42.44303" lon="0.0655">
        <ele>606.4</ele>
        <time>2016-07-31T09:01:20Z</time>
      </trkpt>
      <trkpt lat="42.443" lon="0.06545">
        <ele>607.1</ele>
        <time>2016-07-31T09:01:22Z</time>
      </trkpt>
      <trkpt lat="42.44297" lon="0.0654">
        <ele>607.9</ele>
        <time>2016-07-31T09:01:24Z</time>
      </trkpt>
      <trkpt lat="42.44293" lon="0.06535">
        <ele>608.7</ele>
        <time>2016-07-31T09:01:26Z</time>
      </trkpt>
      <trkpt lat="42.44289" lon="0.06531">
        <ele>609.3</ele>
        <time>2016-07-31T09:01:28Z</time>
      </trkpt>
      <trkpt lat="42.44285" lon="0.06527">
        <ele>609.8</ele>
        <time>2016-07-31T09:01:30Z</time>
      </trkpt>
      <trkpt lat="42.44282" lon="0.06523">
        <ele>610.3</ele>
        <time>2016-07-31T09:01:32Z</time>
      </trkpt>
      <trkpt lat="42.44278" lon="0.06519">
        <ele>610.8</ele>
        <time>2016-07-31T09:01:34Z</time>
      </trkpt>
      <trkpt lat="42.44274" lon="0.06517">
        <ele>611.1</ele>
        <time>2016-07-31T09:01:36Z</time>
      </trkpt>
      <trkpt lat="42.44269" lon="0.06515">
        <ele>611.3</ele>
        <time>2016-07-31T09:01:38Z</time>
      </trkpt>
      <trkpt lat="42.44264" lon="0.06514">
        <ele>611.4</ele>
        <time>2016-07-31T09:01:40Z</time>
      </trkpt>
      <trkpt lat="42.44259" lon="0.06514">
        <ele>611.5</ele>
        <time>2016-07-31T09:01:42Z</time>
      </trkpt>
      <trkpt lat="42.44255" lon="0.06513">
        <ele>611.6</ele>
        <time>2016-07-31T09:01:44Z</time>
      </trkpt>
      <trkpt lat="42.4425" lon="0.06513">
        <ele>611.6</ele>
        <time>2016-07-31T09:01:46Z</time>
      </trkpt>
      <trkpt lat="42.44246" lon="0.06512">
        <ele>611.7</ele>
        <time>2016-07-31T09:01:48Z</time>
      </trkpt>
      <trkpt lat="42.44241" lon="0.06511">
        <ele>611.8</ele>
        <time>2016-07-31T09:01:50Z</time>
      </trkpt>
      <trkpt lat="42.44236" lon="0.06511">
        <ele>611.9</ele>
        <time>2016-07-31T09:01:52Z</time>
      </trkpt>
      <trkpt lat="42.44231" lon="0.0651">
        <ele>612</ele>
        <time>2016-07-31T09:01:54Z</time>
      </trkpt>
      <trkpt lat="42.44226" lon="0.0651">
        <ele>612</ele>
        <time>2016-07-31T09:01:56Z</time>
      </trkpt>
      <trkpt lat="42.44222" lon="0.06511">
        <ele>611.9</ele>
        <time>2016-07-31T09:01:58Z</time>
      </trkpt>
      <trkpt lat="42.44217" lon="0.06511">
        <ele>611.9</ele>
        <time>2016-07-31T09:02:00Z</time>
      </trkpt>
      <trkpt lat="42.44213" lon="0.06511">
        <ele>612</ele>
        <time>2016-07-31T09:02:02Z</time>
      </trkpt>
      <trkpt lat="42.44208" lon="0.06509">
        <ele>612.1</ele>
        <time>2016-07-31T09:02:04Z</time>
      </trkpt>
      <trkpt lat="42.44204" lon="0.06509">
        <ele>612.1</ele>
        <time>2016-07-31T09:02:06Z</time>
      </trkpt>
      <trkpt lat="42.44199" lon="0.06508">
        <ele>612.1</ele>
        <time>2016-07-31T09:02:08Z</time>
      </trkpt>
      <trkpt lat="42.44194" lon="0.06506">
        <ele>612.2</ele>
        <time>2016-07-31T09:02:10Z</time>
      </trkpt>
      <trkpt lat="42.44191" lon="0.06505">
        <ele>612.3</ele>
        <time>2016-07-31T09:02:11Z</time>
      </trkpt>
      <trkpt lat="42.44189" lon="0.06503">
        <ele>612.3</ele>
        <time>2016-07-31T09:02:12Z</time>
      </trkpt>
      <trkpt lat="42.44186" lon="0.06502">
        <ele>612.4</ele>
        <time>2016-07-31T09:02:13Z</time>
      </trkpt>
      <trkpt lat="42.44184" lon="0.06501">
        <ele>612.5</ele>
        <time>2016-07-31T09:02:14Z</time>
      </trkpt>
      <trkpt lat="42.44181" lon="0.06499">
        <ele>612.6</ele>
        <time>2016-07-31T09:02:15Z</time>
      </trkpt>
      <trkpt lat="42.44178" lon="0.06498">
        <ele>612.6</ele>
        <time>2016-07-31T09:02:16Z</time>
      </trkpt>
      <trkpt lat="42.44176" lon="0.06497">
        <ele>612.6</ele>
        <time>2016-07-31T09:02:17Z</time>
      </trkpt>
      <trkpt lat="42.44173" lon="0.06496">
        <ele>612.7</ele>
        <time>2016-07-31T09:02:18Z</time>
      </trkpt>
      <trkpt lat="42.4417" lon="0.06495">
        <ele>612.8</ele>
        <time>2016-07-31T09:02:19Z</time>
      </trkpt>
      <trkpt lat="42.44168" lon="0.06494">
        <ele>612.8</ele>
        <time>2016-07-31T09:02:20Z</time>
      </trkpt>
      <trkpt lat="42.44165" lon="0.06492">
        <ele>612.9</ele>
        <time>2016-07-31T09:02:21Z</time>
      </trkpt>
      <trkpt lat="42.44163" lon="0.0649">
        <ele>613</ele>
        <time>2016-07-31T09:02:22Z</time>
      </trkpt>
      <trkpt lat="42.4416" lon="0.06489">
        <ele>613.1</ele>
        <time>2016-07-31T09:02:23Z</time>
      </trkpt>
      <trkpt lat="42.44155" lon="0.06486">
        <ele>613.3</ele>
        <time>2016-07-31T09:02:25Z</time>
      </trkpt>
      <trkpt lat="42.44151" lon="0.06482">
        <ele>613.5</ele>
        <time>2016-07-31T09:02:27Z</time>
      </trkpt>
      <trkpt lat="42.44146" lon="0.06479">
        <ele>613.7</ele>
        <time>2016-07-31T09:02:29Z</time>
      </trkpt>
      <trkpt lat="42.44144" lon="0.06477">
        <ele>613.8</ele>
        <time>2016-07-31T09:02:30Z</time>
      </trkpt>
      <trkpt lat="42.44142" lon="0.06476">
        <ele>613.9</ele>
        <time>2016-07-31T09:02:31Z</time>
      </trkpt>
      <trkpt lat="42.44139" lon="0.06474">
        <ele>614</ele>
        <time>2016-07-31T09:02:32Z</time>
      </trkpt>
      <trkpt lat="42.44137" lon="0.06472">
        <ele>614.1</ele>
        <time>2016-07-31T09:02:33Z</time>
      </trkpt>
      <trkpt lat="42.44134" lon="0.0647">
        <ele>614.2</ele>
        <time>2016-07-31T09:02:34Z</time>
      </trkpt>
      <trkpt lat="42.4413" lon="0.06466">
        <ele>614.4</ele>
        <time>2016-07-31T09:02:36Z</time>
      </trkpt>
      <trkpt lat="42.44125" lon="0.06463">
        <ele>614.6</ele>
        <time>2016-07-31T09:02:38Z</time>
      </trkpt>
      <trkpt lat="42.44123" lon="0.06461">
        <ele>614.9</ele>
        <time>2016-07-31T09:02:39Z</time>
      </trkpt>
      <trkpt lat="42.4412" lon="0.06459">
        <ele>615.2</ele>
        <time>2016-07-31T09:02:40Z</time>
      </trkpt>
      <trkpt lat="42.44116" lon="0.06456">
        <ele>615.9</ele>
        <time>2016-07-31T09:02:42Z</time>
      </trkpt>
      <trkpt lat="42.44112" lon="0.06453">
        <ele>616.6</ele>
        <time>2016-07-31T09:02:44Z</time>
      </trkpt>
      <trkpt lat="42.44108" lon="0.0645">
        <ele>617.2</ele>
        <time>2016-07-31T09:02:46Z</time>
      </trkpt>
      <trkpt lat="42.44105" lon="0.06447">
        <ele>617.9</ele>
        <time>2016-07-31T09:02:48Z</time>
      </trkpt>
      <trkpt lat="42.44101" lon="0.06445">
        <ele>618.5</ele>
        <time>2016-07-31T09:02:50Z</time>
      </trkpt>
      <trkpt lat="42.44097" lon="0.06442">
        <ele>619.1</ele>
        <time>2016-07-31T09:02:52Z</time>
      </trkpt>
      <trkpt lat="42.44094" lon="0.06439">
        <ele>619.8</ele>
        <time>2016-07-31T09:02:54Z</time>
      </trkpt>
      <trkpt lat="42.4409" lon="0.06435">
        <ele>620.5</ele>
        <time>2016-07-31T09:02:56Z</time>
      </trkpt>
      <trkpt lat="42.44086" lon="0.06432">
        <ele>621.1</ele>
        <time>2016-07-31T09:02:58Z</time>
      </trkpt>
      <trkpt lat="42.44082" lon="0.0643">
        <ele>621.6</ele>
        <time>2016-07-31T09:03:00Z</time>
      </trkpt>
      <trkpt lat="42.44079" lon="0.06427">
        <ele>622.2</ele>
        <time>2016-07-31T09:03:02Z</time>
      </trkpt>
      <trkpt lat="42.44075" lon="0.06425">
        <ele>622.7</ele>
        <time>2016-07-31T09:03:04Z</time>
      </trkpt>
      <trkpt lat="42.44071" lon="0.06423">
        <ele>623.2</ele>
        <time>2016-07-31T09:03:06Z</time>
      </trkpt>
      <trkpt lat="42.44066" lon="0.06421">
        <ele>623.6</ele>
        <time>2016-07-31T09:03:08Z</time>
      </trkpt>
      <trkpt lat="42.44062" lon="0.06419">
        <ele>624.1</ele>
        <time>2016-07-31T09:03:10Z</time>
      </trkpt>
      <trkpt lat="42.44058" lon="0.06416">
        <ele>624.6</ele>
        <time>2016-07-31T09:03:12Z</time>
      </trkpt>
      <trkpt lat="42.44055" lon="0.06413">
        <ele>625.2</ele>
        <time>2016-07-31T09:03:14Z</time>
      </trkpt>
      <trkpt lat="42.44052" lon="0.06409">
        <ele>625.8</ele>
        <time>2016-07-31T09:03:16Z</time>
      </trkpt>
      <trkpt lat="42.44048" lon="0.06406">
        <ele>626.4</ele>
        <time>2016-07-31T09:03:18Z</time>
      </trkpt>
      <trkpt lat="42.44045" lon="0.06403">
        <ele>627</ele>
        <time>2016-07-31T09:03:20Z</time>
      </trkpt>
      <trkpt lat="42.44041" lon="0.06399">
        <ele>627.5</ele>
        <time>2016-07-31T09:03:22Z</time>
      </trkpt>
      <trkpt lat="42.44038" lon="0.06396">
        <ele>628.2</ele>
        <time>2016-07-31T09:03:24Z</time>
      </trkpt>
      <trkpt lat="42.44036" lon="0.06391">
        <ele>629</ele>
        <time>2016-07-31T09:03:26Z</time>
      </trkpt>
      <trkpt lat="42.44034" lon="0.06387">
        <ele>629.8</ele>
        <time>2016-07-31T09:03:28Z</time>
      </trkpt>
      <trkpt lat="42.44033" lon="0.06382">
        <ele>630.6</ele>
        <time>2016-07-31T09:03:30Z</time>
      </trkpt>
      <trkpt lat="42.44033" lon="0.06377">
        <ele>631.3</ele>
        <time>2016-07-31T09:03:32Z</time>
      </trkpt>
      <trkpt lat="42.44033" lon="0.06373">
        <ele>632.2</ele>
        <time>2016-07-31T09:03:34Z</time>
      </trkpt>
      <trkpt lat="42.44035" lon="0.06369">
        <ele>633.2</ele>
        <time>2016-07-31T09:03:36Z</time>
      </trkpt>
      <trkpt lat="42.44036" lon="0.06365">
        <ele>634.1</ele>
        <time>2016-07-31T09:03:38Z</time>
      </trkpt>
      <trkpt lat="42.44038" lon="0.06361">
        <ele>634.8</ele>
        <time>2016-07-31T09:03:40Z</time>
      </trkpt>
      <trkpt lat="42.44041" lon="0.06358">
        <ele>635.3</ele>
        <time>2016-07-31T09:03:42Z</time>
      </trkpt>
      <trkpt lat="42.44044" lon="0.06356">
        <ele>635.7</ele>
        <time>2016-07-31T09:03:44Z</time>
      </trkpt>
      <trkpt lat="42.44048" lon="0.06355">
        <ele>635.9</ele>
        <time>2016-07-31T09:03:46Z</time>
      </trkpt>
      <trkpt lat="42.44052" lon="0.06354">
        <ele>636.2</ele>
        <time>2016-07-31T09:03:48Z</time>
      </trkpt>
      <trkpt lat="42.44055" lon="0.06351">
        <ele>636.8</ele>
        <time>2016-07-31T09:03:50Z</time>
      </trkpt>
      <trkpt lat="42.44059" lon="0.06348">
        <ele>637.5</ele>
        <time>2016-07-31T09:03:52Z</time>
      </trkpt>
      <trkpt lat="42.44062" lon="0.06346">
        <ele>638</ele>
        <time>2016-07-31T09:03:54Z</time>
      </trkpt>
      <trkpt lat="42.44066" lon="0.06343">
        <ele>638.6</ele>
        <time>2016-07-31T09:03:56Z</time>
      </trkpt>
      <trkpt lat="42.4407" lon="0.06341">
        <ele>639.2</ele>
        <time>2016-07-31T09:03:58Z</time>
      </trkpt>
      <trkpt lat="42.44074" lon="0.06338">
        <ele>639.8</ele>
        <time>2016-07-31T09:04:00Z</time>
      </trkpt>
      <trkpt lat="42.44077" lon="0.06335">
        <ele>640.3</ele>
        <time>2016-07-31T09:04:02Z</time>
      </trkpt>
      <trkpt lat="42.44081" lon="0.06333">
        <ele>640.8</ele>
        <time>2016-07-31T09:04:04Z</time>
      </trkpt>
      <trkpt lat="42.44084" lon="0.06331">
        <ele>641.3</ele>
        <time>2016-07-31T09:04:06Z</time>
      </trkpt>
      <trkpt lat="42.44088" lon="0.06329">
        <ele>641.7</ele>
        <time>2016-07-31T09:04:08Z</time>
      </trkpt>
      <trkpt lat="42.44091" lon="0.06328">
        <ele>641.9</ele>
        <time>2016-07-31T09:04:10Z</time>
      </trkpt>
      <trkpt lat="42.44095" lon="0.06326">
        <ele>642.2</ele>
        <time>2016-07-31T09:04:12Z</time>
      </trkpt>
      <trkpt lat="42.44099" lon="0.06324">
        <ele>642.7</ele>
        <time>2016-07-31T09:04:14Z</time>
      </trkpt>
      <trkpt lat="42.44102" lon="0.06322">
        <ele>643.2</ele>
        <time>2016-07-31T09:04:16Z</time>
      </trkpt>
      <trkpt lat="42.44104" lon="0.06318">
        <ele>644.2</ele>
        <time>2016-07-31T09:04:18Z</time>
      </trkpt>
      <trkpt lat="42.44105" lon="0.06313">
        <ele>645.4</ele>
        <time>2016-07-31T09:04:20Z</time>
      </trkpt>
      <trkpt lat="42.44103" lon="0.06307">
        <ele>646.7</ele>
        <time>2016-07-31T09:04:22Z</time>
      </trkpt>
      <trkpt lat="42.44099" lon="0.06304">
        <ele>647.6</ele>
        <time>2016-07-31T09:04:24Z</time>
      </trkpt>
      <trkpt lat="42.44094" lon="0.06303">
        <ele>648</ele>
        <time>2016-07-31T09:04:26Z</time>
      </trkpt>
      <trkpt lat="42.44089" lon="0.06304">
        <ele>648</ele>
        <time>2016-07-31T09:04:28Z</time>
      </trkpt>
      <trkpt lat="42.44085" lon="0.06304">
        <ele>647.9</ele>
        <time>2016-07-31T09:04:30Z</time>
      </trkpt>
      <trkpt lat="42.44081" lon="0.06305">
        <ele>647.9</ele>
        <time>2016-07-31T09:04:32Z</time>
      </trkpt>
      <trkpt lat="42.44076" lon="0.06305">
        <ele>648</ele>
        <time>2016-07-31T09:04:34Z</time>
      </trkpt>
      <trkpt lat="42.44072" lon="0.06304">
        <ele>648.2</ele>
        <time>2016-07-31T09:04:36Z</time>
      </trkpt>
      <trkpt lat="42.44068" lon="0.06303">
        <ele>648.6</ele>
        <time>2016-07-31T09:04:38Z</time>
      </trkpt>
      <trkpt lat="42.44064" lon="0.06301">
        <ele>649</ele>
        <time>2016-07-31T09:04:40Z</time>
      </trkpt>
      <trkpt lat="42.44061" lon="0.06299">
        <ele>649.7</ele>
        <time>2016-07-31T09:04:42Z</time>
      </trkpt>
      <trkpt lat="42.44058" lon="0.06296">
        <ele>650.5</ele>
        <time>2016-07-31T09:04:44Z</time>
      </trkpt>
      <trkpt lat="42.44055" lon="0.06293">
        <ele>651.5</ele>
        <time>2016-07-31T09:04:46Z</time>
      </trkpt>
      <trkpt lat="42.44053" lon="0.06288">
        <ele>652.7</ele>
        <time>2016-07-31T09:04:48Z</time>
      </trkpt>
      <trkpt lat="42.44053" lon="0.06283">
        <ele>654.3</ele>
        <time>2016-07-31T09:04:50Z</time>
      </trkpt>
      <trkpt lat="42.44055" lon="0.06279">
        <ele>655.7</ele>
        <time>2016-07-31T09:04:52Z</time>
      </trkpt>
      <trkpt lat="42.44058" lon="0.06275">
        <ele>656.6</ele>
        <time>2016-07-31T09:04:54Z</time>
      </trkpt>
      <trkpt lat="42.44062" lon="0.06275">
        <ele>656.7</ele>
        <time>2016-07-31T09:04:56Z</time>
      </trkpt>
      <trkpt lat="42.44066" lon="0.06276">
        <ele>656.3</ele>
        <time>2016-07-31T09:04:58Z</time>
      </trkpt>
      <trkpt lat="42.4407" lon="0.06279">
        <ele>655.4</ele>
        <time>2016-07-31T09:05:00Z</time>
      </trkpt>
      <trkpt lat="42.44074" lon="0.06282">
        <ele>654.3</ele>
        <time>2016-07-31T09:05:02Z</time>
      </trkpt>
      <trkpt lat="42.44078" lon="0.06285">
        <ele>653.1</ele>
        <time>2016-07-31T09:05:04Z</time>
      </trkpt>
      <trkpt lat="42.44081" lon="0.06288">
        <ele>652.2</ele>
        <time>2016-07-31T09:05:06Z</time>
      </trkpt>
      <trkpt lat="42.44085" lon="0.06289">
        <ele>651.8</ele>
        <time>2016-07-31T09:05:08Z</time>
      </trkpt>
      <trkpt lat="42.4409" lon="0.06289">
        <ele>651.6</ele>
        <time>2016-07-31T09:05:10Z</time>
      </trkpt>
      <trkpt lat="42.44094" lon="0.06288">
        <ele>651.8</ele>
        <time>2016-07-31T09:05:12Z</time>
      </trkpt>
      <trkpt lat="42.44098" lon="0.06287">
        <ele>652.2</ele>
        <time>2016-07-31T09:05:14Z</time>
      </trkpt>
      <trkpt lat="42.44102" lon="0.06286">
        <ele>652.5</ele>
        <time>2016-07-31T09:05:16Z</time>
      </trkpt>
      <trkpt lat="42.44107" lon="0.06284">
        <ele>653</ele>
        <time>2016-07-31T09:05:18Z</time>
      </trkpt>
      <trkpt lat="42.44111" lon="0.06282">
        <ele>653.5</ele>
        <time>2016-07-31T09:05:20Z</time>
      </trkpt>
      <trkpt lat="42.44115" lon="0.0628">
        <ele>654</ele>
        <time>2016-07-31T09:05:22Z</time>
      </trkpt>
      <trkpt lat="42.44118" lon="0.06278">
        <ele>654.8</ele>
        <time>2016-07-31T09:05:24Z</time>
      </trkpt>
      <trkpt lat="42.44122" lon="0.06276">
        <ele>655.4</ele>
        <time>2016-07-31T09:05:26Z</time>
      </trkpt>
      <trkpt lat="42.44126" lon="0.06274">
        <ele>656</ele>
        <time>2016-07-31T09:05:28Z</time>
      </trkpt>
      <trkpt lat="42.4413" lon="0.06273">
        <ele>656.6</ele>
        <time>2016-07-31T09:05:30Z</time>
      </trkpt>
      <trkpt lat="42.44134" lon="0.06272">
        <ele>657.2</ele>
        <time>2016-07-31T09:05:32Z</time>
      </trkpt>
      <trkpt lat="42.44139" lon="0.06271">
        <ele>657.7</ele>
        <time>2016-07-31T09:05:34Z</time>
      </trkpt>
      <trkpt lat="42.44143" lon="0.0627">
        <ele>658.1</ele>
        <time>2016-07-31T09:05:36Z</time>
      </trkpt>
      <trkpt lat="42.44148" lon="0.06269">
        <ele>658.7</ele>
        <time>2016-07-31T09:05:38Z</time>
      </trkpt>
      <trkpt lat="42.44151" lon="0.06267">
        <ele>659.7</ele>
        <time>2016-07-31T09:05:40Z</time>
      </trkpt>
      <trkpt lat="42.44154" lon="0.06264">
        <ele>661.1</ele>
        <time>2016-07-31T09:05:42Z</time>
      </trkpt>
      <trkpt lat="42.44155" lon="0.06259">
        <ele>662.8</ele>
        <time>2016-07-31T09:05:44Z</time>
      </trkpt>
      <trkpt lat="42.44153" lon="0.06254">
        <ele>664.4</ele>
        <time>2016-07-31T09:05:46Z</time>
      </trkpt>
      <trkpt lat="42.44148" lon="0.06251">
        <ele>664.9</ele>
        <time>2016-07-31T09:05:48Z</time>
      </trkpt>
      <trkpt lat="42.44143" lon="0.06252">
        <ele>664.4</ele>
        <time>2016-07-31T09:05:50Z</time>
      </trkpt>
      <trkpt lat="42.44138" lon="0.06254">
        <ele>663.4</ele>
        <time>2016-07-31T09:05:52Z</time>
      </trkpt>
      <trkpt lat="42.44134" lon="0.06256">
        <ele>662.5</ele>
        <time>2016-07-31T09:05:54Z</time>
      </trkpt>
      <trkpt lat="42.44129" lon="0.06258">
        <ele>661.7</ele>
        <time>2016-07-31T09:05:56Z</time>
      </trkpt>
      <trkpt lat="42.44124" lon="0.06258">
        <ele>661.2</ele>
        <time>2016-07-31T09:05:58Z</time>
      </trkpt>
      <trkpt lat="42.4412" lon="0.06259">
        <ele>661.2</ele>
        <time>2016-07-31T09:06:00Z</time>
      </trkpt>
      <trkpt lat="42.44116" lon="0.06258">
        <ele>661.3</ele>
        <time>2016-07-31T09:06:02Z</time>
      </trkpt>
      <trkpt lat="42.44112" lon="0.06257">
        <ele>661.6</ele>
        <time>2016-07-31T09:06:04Z</time>
      </trkpt>
      <trkpt lat="42.44108" lon="0.06256">
        <ele>662.3</ele>
        <time>2016-07-31T09:06:06Z</time>
      </trkpt>
      <trkpt lat="42.44105" lon="0.06253">
        <ele>663.1</ele>
        <time>2016-07-31T09:06:08Z</time>
      </trkpt>
      <trkpt lat="42.44102" lon="0.0625">
        <ele>664.1</ele>
        <time>2016-07-31T09:06:10Z</time>
      </trkpt>
      <trkpt lat="42.44099" lon="0.06248">
        <ele>665</ele>
        <time>2016-07-31T09:06:12Z</time>
      </trkpt>
      <trkpt lat="42.44096" lon="0.06245">
        <ele>665.9</ele>
        <time>2016-07-31T09:06:14Z</time>
      </trkpt>
      <trkpt lat="42.44093" lon="0.06242">
        <ele>666.7</ele>
        <time>2016-07-31T09:06:16Z</time>
      </trkpt>
      <trkpt lat="42.44091" lon="0.0624">
        <ele>667.5</ele>
        <time>2016-07-31T09:06:18Z</time>
      </trkpt>
      <trkpt lat="42.44088" lon="0.06237">
        <ele>668.3</ele>
        <time>2016-07-31T09:06:20Z</time>
      </trkpt>
      <trkpt lat="42.44085" lon="0.06235">
        <ele>669.1</ele>
        <time>2016-07-31T09:06:22Z</time>
      </trkpt>
      <trkpt lat="42.44082" lon="0.06232">
        <ele>669.9</ele>
        <time>2016-07-31T09:06:24Z</time>
      </trkpt>
      <trkpt lat="42.44079" lon="0.0623">
        <ele>670.7</ele>
        <time>2016-07-31T09:06:26Z</time>
      </trkpt>
      <trkpt lat="42.44076" lon="0.06227">
        <ele>671.5</ele>
        <time>2016-07-31T09:06:28Z</time>
      </trkpt>
      <trkpt lat="42.44073" lon="0.06225">
        <ele>672.2</ele>
        <time>2016-07-31T09:06:30Z</time>
      </trkpt>
      <trkpt lat="42.44071" lon="0.06223">
        <ele>672.7</ele>
        <time>2016-07-31T09:06:32Z</time>
      </trkpt>
      <trkpt lat="42.44068" lon="0.06221">
        <ele>673.4</ele>
        <time>2016-07-31T09:06:34Z</time>
      </trkpt>
      <trkpt lat="42.44066" lon="0.06218">
        <ele>674.4</ele>
        <time>2016-07-31T09:06:36Z</time>
      </trkpt>
      <trkpt lat="42.44066" lon="0.06213">
        <ele>675.9</ele>
        <time>2016-07-31T09:06:38Z</time>
      </trkpt>
      <trkpt lat="42.44067" lon="0.06208">
        <ele>677.4</ele>
        <time>2016-07-31T09:06:40Z</time>
      </trkpt>
      <trkpt lat="42.44071" lon="0.06206">
        <ele>678.2</ele>
        <time>2016-07-31T09:06:42Z</time>
      </trkpt>
      <trkpt lat="42.44075" lon="0.06205">
        <ele>678.4</ele>
        <time>2016-07-31T09:06:44Z</time>
      </trkpt>
      <trkpt lat="42.44079" lon="0.06207">
        <ele>677.9</ele>
        <time>2016-07-31T09:06:46Z</time>
      </trkpt>
      <trkpt lat="42.44083" lon="0.06209">
        <ele>677.3</ele>
        <time>2016-07-31T09:06:48Z</time>
      </trkpt>
      <trkpt lat="42.44088" lon="0.06211">
        <ele>676.8</ele>
        <time>2016-07-31T09:06:50Z</time>
      </trkpt>
      <trkpt lat="42.44092" lon="0.06212">
        <ele>676.4</ele>
        <time>2016-07-31T09:06:52Z</time>
      </trkpt>
      <trkpt lat="42.44096" lon="0.06214">
        <ele>675.9</ele>
        <time>2016-07-31T09:06:54Z</time>
      </trkpt>
      <trkpt lat="42.44099" lon="0.06215">
        <ele>675.5</ele>
        <time>2016-07-31T09:06:56Z</time>
      </trkpt>
      <trkpt lat="42.44103" lon="0.06217">
        <ele>675</ele>
        <time>2016-07-31T09:06:58Z</time>
      </trkpt>
      <trkpt lat="42.44107" lon="0.06218">
        <ele>674.6</ele>
        <time>2016-07-31T09:07:00Z</time>
      </trkpt>
      <trkpt lat="42.4411" lon="0.0622">
        <ele>674.1</ele>
        <time>2016-07-31T09:07:02Z</time>
      </trkpt>
      <trkpt lat="42.44114" lon="0.06221">
        <ele>673.6</ele>
        <time>2016-07-31T09:07:04Z</time>
      </trkpt>
      <trkpt lat="42.44117" lon="0.06223">
        <ele>673</ele>
        <time>2016-07-31T09:07:06Z</time>
      </trkpt>
      <trkpt lat="42.44121" lon="0.06224">
        <ele>672.6</ele>
        <time>2016-07-31T09:07:08Z</time>
      </trkpt>
      <trkpt lat="42.44124" lon="0.06225">
        <ele>672.4</ele>
        <time>2016-07-31T09:07:10Z</time>
      </trkpt>
      <trkpt lat="42.44127" lon="0.06226">
        <ele>672.3</ele>
        <time>2016-07-31T09:07:12Z</time>
      </trkpt>
      <trkpt lat="42.4413" lon="0.06226">
        <ele>672.5</ele>
        <time>2016-07-31T09:07:14Z</time>
      </trkpt>
      <trkpt lat="42.44133" lon="0.06225">
        <ele>673.1</ele>
        <time>2016-07-31T09:07:16Z</time>
      </trkpt>
      <trkpt lat="42.44136" lon="0.06223">
        <ele>673.8</ele>
        <time>2016-07-31T09:07:18Z</time>
      </trkpt>
      <trkpt lat="42.44139" lon="0.06221">
        <ele>674.6</ele>
        <time>2016-07-31T09:07:20Z</time>
      </trkpt>
      <trkpt lat="42.44141" lon="0.06218">
        <ele>675.8</ele>
        <time>2016-07-31T09:07:22Z</time>
      </trkpt>
      <trkpt lat="42.44142" lon="0.06214">
        <ele>677.3</ele>
        <time>2016-07-31T09:07:24Z</time>
      </trkpt>
      <trkpt lat="42.44143" lon="0.0621">
        <ele>678.9</ele>
        <time>2016-07-31T09:07:26Z</time>
      </trkpt>
      <trkpt lat="42.44143" lon="0.06205">
        <ele>680.4</ele>
        <time>2016-07-31T09:07:28Z</time>
      </trkpt>
      <trkpt lat="42.44144" lon="0.062">
        <ele>681.8</ele>
        <time>2016-07-31T09:07:30Z</time>
      </trkpt>
      <trkpt lat="42.44144" lon="0.06195">
        <ele>683.3</ele>
        <time>2016-07-31T09:07:32Z</time>
      </trkpt>
      <trkpt lat="42.44145" lon="0.06191">
        <ele>684.6</ele>
        <time>2016-07-31T09:07:34Z</time>
      </trkpt>
      <trkpt lat="42.44148" lon="0.06188">
        <ele>685.8</ele>
        <time>2016-07-31T09:07:36Z</time>
      </trkpt>
      <trkpt lat="42.44151" lon="0.06186">
        <ele>686.6</ele>
        <time>2016-07-31T09:07:38Z</time>
      </trkpt>
      <trkpt lat="42.44154" lon="0.06186">
        <ele>687.2</ele>
        <time>2016-07-31T09:07:40Z</time>
      </trkpt>
      <trkpt lat="42.44158" lon="0.06185">
        <ele>687.7</ele>
        <time>2016-07-31T09:07:42Z</time>
      </trkpt>
      <trkpt lat="42.44162" lon="0.06186">
        <ele>687.7</ele>
        <time>2016-07-31T09:07:44Z</time>
      </trkpt>
      <trkpt lat="42.44165" lon="0.06188">
        <ele>687.4</ele>
        <time>2016-07-31T09:07:46Z</time>
      </trkpt>
      <trkpt lat="42.44168" lon="0.0619">
        <ele>687.1</ele>
        <time>2016-07-31T09:07:48Z</time>
      </trkpt>
      <trkpt lat="42.44172" lon="0.06192">
        <ele>686.9</ele>
        <time>2016-07-31T09:07:50Z</time>
      </trkpt>
      <trkpt lat="42.44175" lon="0.06193">
        <ele>686.7</ele>
        <time>2016-07-31T09:07:52Z</time>
      </trkpt>
      <trkpt lat="42.44178" lon="0.06194">
        <ele>686.5</ele>
        <time>2016-07-31T09:07:54Z</time>
      </trkpt>
      <trkpt lat="42.44181" lon="0.06195">
        <ele>686.5</ele>
        <time>2016-07-31T09:07:56Z</time>
      </trkpt>
      <trkpt lat="42.44184" lon="0.06197">
        <ele>686.3</ele>
        <time>2016-07-31T09:07:58Z</time>
      </trkpt>
      <trkpt lat="42.44187" lon="0.06198">
        <ele>685.9</ele>
        <time>2016-07-31T09:08:00Z</time>
      </trkpt>
      <trkpt lat="42.4419" lon="0.062">
        <ele>685.5</ele>
        <time>2016-07-31T09:08:02Z</time>
      </trkpt>
      <trkpt lat="42.44193" lon="0.06203">
        <ele>684.8</ele>
        <time>2016-07-31T09:08:04Z</time>
      </trkpt>
      <trkpt lat="42.44196" lon="0.06206">
        <ele>684</ele>
        <time>2016-07-31T09:08:06Z</time>
      </trkpt>
      <trkpt lat="42.44199" lon="0.06209">
        <ele>683.1</ele>
        <time>2016-07-31T09:08:08Z</time>
      </trkpt>
      <trkpt lat="42.44201" lon="0.06212">
        <ele>682.3</ele>
        <time>2016-07-31T09:08:10Z</time>
      </trkpt>
      <trkpt lat="42.44204" lon="0.06214">
        <ele>681.6</ele>
        <time>2016-07-31T09:08:12Z</time>
      </trkpt>
      <trkpt lat="42.44207" lon="0.06217">
        <ele>681</ele>
        <time>2016-07-31T09:08:14Z</time>
      </trkpt>
      <trkpt lat="42.4421" lon="0.06219">
        <ele>680.5</ele>
        <time>2016-07-31T09:08:16Z</time>
      </trkpt>
      <trkpt lat="42.44214" lon="0.06221">
        <ele>680.1</ele>
        <time>2016-07-31T09:08:18Z</time>
      </trkpt>
      <trkpt lat="42.44217" lon="0.06223">
        <ele>679.5</ele>
        <time>2016-07-31T09:08:20Z</time>
      </trkpt>
      <trkpt lat="42.4422" lon="0.06225">
        <ele>679.3</ele>
        <time>2016-07-31T09:08:22Z</time>
      </trkpt>
      <trkpt lat="42.44224" lon="0.06225">
        <ele>679.6</ele>
        <time>2016-07-31T09:08:24Z</time>
      </trkpt>
      <trkpt lat="42.44227" lon="0.06226">
        <ele>679.8</ele>
        <time>2016-07-31T09:08:26Z</time>
      </trkpt>
      <trkpt lat="42.44231" lon="0.06226">
        <ele>680.1</ele>
        <time>2016-07-31T09:08:28Z</time>
      </trkpt>
      <trkpt lat="42.44233" lon="0.06224">
        <ele>681</ele>
        <time>2016-07-31T09:08:30Z</time>
      </trkpt>
      <trkpt lat="42.44235" lon="0.0622">
        <ele>682.7</ele>
        <time>2016-07-31T09:08:32Z</time>
      </trkpt>
      <trkpt lat="42.44234" lon="0.06215">
        <ele>684.3</ele>
        <time>2016-07-31T09:08:34Z</time>
      </trkpt>
      <trkpt lat="42.44232" lon="0.06211">
        <ele>685.5</ele>
        <time>2016-07-31T09:08:36Z</time>
      </trkpt>
      <trkpt lat="42.44229" lon="0.06208">
        <ele>686</ele>
        <time>2016-07-31T09:08:38Z</time>
      </trkpt>
      <trkpt lat="42.44226" lon="0.06207">
        <ele>686.3</ele>
        <time>2016-07-31T09:08:40Z</time>
      </trkpt>
      <trkpt lat="42.44223" lon="0.06206">
        <ele>686.4</ele>
        <time>2016-07-31T09:08:42Z</time>
      </trkpt>
      <trkpt lat="42.4422" lon="0.06204">
        <ele>686.5</ele>
        <time>2016-07-31T09:08:44Z</time>
      </trkpt>
      <trkpt lat="42.44217" lon="0.06202">
        <ele>687.2</ele>
        <time>2016-07-31T09:08:46Z</time>
      </trkpt>
      <trkpt lat="42.44214" lon="0.06199">
        <ele>688</ele>
        <time>2016-07-31T09:08:48Z</time>
      </trkpt>
      <trkpt lat="42.44212" lon="0.06196">
        <ele>688.9</ele>
        <time>2016-07-31T09:08:50Z</time>
      </trkpt>
      <trkpt lat="42.44209" lon="0.06193">
        <ele>689.7</ele>
        <time>2016-07-31T09:08:52Z</time>
      </trkpt>
      <trkpt lat="42.44206" lon="0.0619">
        <ele>690.5</ele>
        <time>2016-07-31T09:08:54Z</time>
      </trkpt>
      <trkpt lat="42.44204" lon="0.06188">
        <ele>691.2</ele>
        <time>2016-07-31T09:08:56Z</time>
      </trkpt>
      <trkpt lat="42.44201" lon="0.06185">
        <ele>691.8</ele>
        <time>2016-07-31T09:08:58Z</time>
      </trkpt>
      <trkpt lat="42.44198" lon="0.06183">
        <ele>692.4</ele>
        <time>2016-07-31T09:09:00Z</time>
      </trkpt>
      <trkpt lat="42.44196" lon="0.06181">
        <ele>693</ele>
        <time>2016-07-31T09:09:02Z</time>
      </trkpt>
      <trkpt lat="42.44193" lon="0.06179">
        <ele>693.4</ele>
        <time>2016-07-31T09:09:04Z</time>
      </trkpt>
      <trkpt lat="42.44191" lon="0.06176">
        <ele>694.1</ele>
        <time>2016-07-31T09:09:06Z</time>
      </trkpt>
      <trkpt lat="42.44189" lon="0.06173">
        <ele>694.9</ele>
        <time>2016-07-31T09:09:08Z</time>
      </trkpt>
      <trkpt lat="42.44187" lon="0.06171">
        <ele>695.6</ele>
        <time>2016-07-31T09:09:10Z</time>
      </trkpt>
      <trkpt lat="42.44184" lon="0.06168">
        <ele>696.2</ele>
        <time>2016-07-31T09:09:12Z</time>
      </trkpt>
      <trkpt lat="42.44182" lon="0.06165">
        <ele>697</ele>
        <time>2016-07-31T09:09:14Z</time>
      </trkpt>
      <trkpt lat="42.44179" lon="0.06162">
        <ele>697.7</ele>
        <time>2016-07-31T09:09:16Z</time>
      </trkpt>
      <trkpt lat="42.44178" lon="0.06158">
        <ele>698.8</ele>
        <time>2016-07-31T09:09:18Z</time>
      </trkpt>
      <trkpt lat="42.44179" lon="0.06154">
        <ele>700.2</ele>
        <time>2016-07-31T09:09:20Z</time>
      </trkpt>
      <trkpt lat="42.44182" lon="0.06152">
        <ele>701.3</ele>
        <time>2016-07-31T09:09:22Z</time>
      </trkpt>
      <trkpt lat="42.44185" lon="0.06151">
        <ele>702</ele>
        <time>2016-07-31T09:09:24Z</time>
      </trkpt>
      <trkpt lat="42.44188" lon="0.06152">
        <ele>702.3</ele>
        <time>2016-07-31T09:09:26Z</time>
      </trkpt>
      <trkpt lat="42.44191" lon="0.06153">
        <ele>702.2</ele>
        <time>2016-07-31T09:09:28Z</time>
      </trkpt>
      <trkpt lat="42.44195" lon="0.06156">
        <ele>701.8</ele>
        <time>2016-07-31T09:09:30Z</time>
      </trkpt>
      <trkpt lat="42.44198" lon="0.06158">
        <ele>701.4</ele>
        <time>2016-07-31T09:09:32Z</time>
      </trkpt>
      <trkpt lat="42.44201" lon="0.0616">
        <ele>701.1</ele>
        <time>2016-07-31T09:09:34Z</time>
      </trkpt>
      <trkpt lat="42.44204" lon="0.06162">
        <ele>700.6</ele>
        <time>2016-07-31T09:09:36Z</time>
      </trkpt>
      <trkpt lat="42.44207" lon="0.06164">
        <ele>700.4</ele>
        <time>2016-07-31T09:09:38Z</time>
      </trkpt>
      <trkpt lat="42.4421" lon="0.06165">
        <ele>700.2</ele>
        <time>2016-07-31T09:09:40Z</time>
      </trkpt>
      <trkpt lat="42.44213" lon="0.06166">
        <ele>700</ele>
        <time>2016-07-31T09:09:42Z</time>
      </trkpt>
      <trkpt lat="42.44216" lon="0.06167">
        <ele>699.7</ele>
        <time>2016-07-31T09:09:44Z</time>
      </trkpt>
      <trkpt lat="42.44219" lon="0.06169">
        <ele>699.3</ele>
        <time>2016-07-31T09:09:46Z</time>
      </trkpt>
      <trkpt lat="42.44222" lon="0.0617">
        <ele>699</ele>
        <time>2016-07-31T09:09:48Z</time>
      </trkpt>
      <trkpt lat="42.44225" lon="0.06171">
        <ele>698.7</ele>
        <time>2016-07-31T09:09:50Z</time>
      </trkpt>
      <trkpt lat="42.44228" lon="0.06173">
        <ele>698.3</ele>
        <time>2016-07-31T09:09:52Z</time>
      </trkpt>
      <trkpt lat="42.44231" lon="0.06175">
        <ele>698</ele>
        <time>2016-07-31T09:09:54Z</time>
      </trkpt>
      <trkpt lat="42.44234" lon="0.06175">
        <ele>698.1</ele>
        <time>2016-07-31T09:09:56Z</time>
      </trkpt>
      <trkpt lat="42.44237" lon="0.06175">
        <ele>698.1</ele>
        <time>2016-07-31T09:09:58Z</time>
      </trkpt>
      <trkpt lat="42.4424" lon="0.06175">
        <ele>698.3</ele>
        <time>2016-07-31T09:10:00Z</time>
      </trkpt>
      <trkpt lat="42.44242" lon="0.06173">
        <ele>699.1</ele>
        <time>2016-07-31T09:10:02Z</time>
      </trkpt>
      <trkpt lat="42.44244" lon="0.06171">
        <ele>700.1</ele>
        <time>2016-07-31T09:10:04Z</time>
      </trkpt>
      <trkpt lat="42.44247" lon="0.06167">
        <ele>701.5</ele>
        <time>2016-07-31T09:10:07Z</time>
      </trkpt>
      <trkpt lat="42.44247" lon="0.06163">
        <ele>702.8</ele>
        <time>2016-07-31T09:10:09Z</time>
      </trkpt>
      <trkpt lat="42.44248" lon="0.0616">
        <ele>704</ele>
        <time>2016-07-31T09:10:11Z</time>
      </trkpt>
      <trkpt lat="42.44248" lon="0.06156">
        <ele>705.2</ele>
        <time>2016-07-31T09:10:13Z</time>
      </trkpt>
      <trkpt lat="42.44245" lon="0.06151">
        <ele>706.7</ele>
        <time>2016-07-31T09:10:16Z</time>
      </trkpt>
      <trkpt lat="42.44243" lon="0.06149">
        <ele>707.3</ele>
        <time>2016-07-31T09:10:18Z</time>
      </trkpt>
      <trkpt lat="42.4424" lon="0.06148">
        <ele>707.5</ele>
        <time>2016-07-31T09:10:20Z</time>
      </trkpt>
      <trkpt lat="42.44237" lon="0.06148">
        <ele>707.5</ele>
        <time>2016-07-31T09:10:22Z</time>
      </trkpt>
      <trkpt lat="42.44234" lon="0.06147">
        <ele>707.6</ele>
        <time>2016-07-31T09:10:24Z</time>
      </trkpt>
      <trkpt lat="42.44231" lon="0.06147">
        <ele>707.7</ele>
        <time>2016-07-31T09:10:26Z</time>
      </trkpt>
      <trkpt lat="42.44228" lon="0.06147">
        <ele>707.7</ele>
        <time>2016-07-31T09:10:28Z</time>
      </trkpt>
      <trkpt lat="42.44225" lon="0.06145">
        <ele>708.2</ele>
        <time>2016-07-31T09:10:31Z</time>
      </trkpt>
      <trkpt lat="42.44222" lon="0.06143">
        <ele>708.9</ele>
        <time>2016-07-31T09:10:33Z</time>
      </trkpt>
      <trkpt lat="42.4422" lon="0.0614">
        <ele>709.7</ele>
        <time>2016-07-31T09:10:35Z</time>
      </trkpt>
      <trkpt lat="42.44217" lon="0.06138">
        <ele>710.4</ele>
        <time>2016-07-31T09:10:37Z</time>
      </trkpt>
      <trkpt lat="42.44215" lon="0.06136">
        <ele>711.2</ele>
        <time>2016-07-31T09:10:39Z</time>
      </trkpt>
      <trkpt lat="42.44211" lon="0.06133">
        <ele>712.2</ele>
        <time>2016-07-31T09:10:42Z</time>
      </trkpt>
      <trkpt lat="42.4421" lon="0.0613">
        <ele>713.2</ele>
        <time>2016-07-31T09:10:44Z</time>
      </trkpt>
      <trkpt lat="42.44208" lon="0.06126">
        <ele>714.6</ele>
        <time>2016-07-31T09:10:47Z</time>
      </trkpt>
      <trkpt lat="42.44209" lon="0.06121">
        <ele>716.2</ele>
        <time>2016-07-31T09:10:50Z</time>
      </trkpt>
      <trkpt lat="42.44212" lon="0.06119">
        <ele>716.7</ele>
        <time>2016-07-31T09:10:52Z</time>
      </trkpt>
      <trkpt lat="42.44215" lon="0.0612">
        <ele>716.5</ele>
        <time>2016-07-31T09:10:54Z</time>
      </trkpt>
      <trkpt lat="42.44218" lon="0.06122">
        <ele>716</ele>
        <time>2016-07-31T09:10:56Z</time>
      </trkpt>
      <trkpt lat="42.44221" lon="0.06124">
        <ele>715.4</ele>
        <time>2016-07-31T09:10:58Z</time>
      </trkpt>
      <trkpt lat="42.44224" lon="0.06126">
        <ele>714.7</ele>
        <time>2016-07-31T09:11:00Z</time>
      </trkpt>
      <trkpt lat="42.44227" lon="0.06128">
        <ele>714.1</ele>
        <time>2016-07-31T09:11:02Z</time>
      </trkpt>
      <trkpt lat="42.4423" lon="0.0613">
        <ele>713.6</ele>
        <time>2016-07-31T09:11:04Z</time>
      </trkpt>
      <trkpt lat="42.44233" lon="0.06131">
        <ele>713.3</ele>
        <time>2016-07-31T09:11:06Z</time>
      </trkpt>
      <trkpt lat="42.44237" lon="0.06132">
        <ele>713.1</ele>
        <time>2016-07-31T09:11:09Z</time>
      </trkpt>
      <trkpt lat="42.4424" lon="0.0613">
        <ele>713.8</ele>
        <time>2016-07-31T09:11:12Z</time>
      </trkpt>
      <trkpt lat="42.44242" lon="0.06126">
        <ele>715</ele>
        <time>2016-07-31T09:11:14Z</time>
      </trkpt>
      <trkpt lat="42.44244" lon="0.06122">
        <ele>716.2</ele>
        <time>2016-07-31T09:11:16Z</time>
      </trkpt>
      <trkpt lat="42.44245" lon="0.06118">
        <ele>717.4</ele>
        <time>2016-07-31T09:11:18Z</time>
      </trkpt>
      <trkpt lat="42.44245" lon="0.06114">
        <ele>718.8</ele>
        <time>2016-07-31T09:11:20Z</time>
      </trkpt>
      <trkpt lat="42.44245" lon="0.0611">
        <ele>720.1</ele>
        <time>2016-07-31T09:11:22Z</time>
      </trkpt>
      <trkpt lat="42.44244" lon="0.06105">
        <ele>721.6</ele>
        <time>2016-07-31T09:11:24Z</time>
      </trkpt>
      <trkpt lat="42.44245" lon="0.061">
        <ele>722.9</ele>
        <time>2016-07-31T09:11:26Z</time>
      </trkpt>
      <trkpt lat="42.44246" lon="0.06096">
        <ele>724.2</ele>
        <time>2016-07-31T09:11:28Z</time>
      </trkpt>
      <trkpt lat="42.44247" lon="0.06092">
        <ele>725.4</ele>
        <time>2016-07-31T09:11:30Z</time>
      </trkpt>
      <trkpt lat="42.44249" lon="0.06089">
        <ele>726.4</ele>
        <time>2016-07-31T09:11:32Z</time>
      </trkpt>
      <trkpt lat="42.44252" lon="0.06087">
        <ele>727.2</ele>
        <time>2016-07-31T09:11:34Z</time>
      </trkpt>
      <trkpt lat="42.44254" lon="0.06085">
        <ele>728</ele>
        <time>2016-07-31T09:11:36Z</time>
      </trkpt>
      <trkpt lat="42.44257" lon="0.06083">
        <ele>728.7</ele>
        <time>2016-07-31T09:11:38Z</time>
      </trkpt>
      <trkpt lat="42.4426" lon="0.06082">
        <ele>729</ele>
        <time>2016-07-31T09:11:40Z</time>
      </trkpt>
      <trkpt lat="42.44264" lon="0.06083">
        <ele>728.7</ele>
        <time>2016-07-31T09:11:43Z</time>
      </trkpt>
      <trkpt lat="42.44267" lon="0.06086">
        <ele>728</ele>
        <time>2016-07-31T09:11:45Z</time>
      </trkpt>
      <trkpt lat="42.4427" lon="0.06089">
        <ele>727.1</ele>
        <time>2016-07-31T09:11:47Z</time>
      </trkpt>
      <trkpt lat="42.44273" lon="0.06092">
        <ele>726.1</ele>
        <time>2016-07-31T09:11:49Z</time>
      </trkpt>
      <trkpt lat="42.44276" lon="0.06096">
        <ele>725.1</ele>
        <time>2016-07-31T09:11:51Z</time>
      </trkpt>
      <trkpt lat="42.44279" lon="0.061">
        <ele>724</ele>
        <time>2016-07-31T09:11:53Z</time>
      </trkpt>
      <trkpt lat="42.44282" lon="0.06103">
        <ele>722.9</ele>
        <time>2016-07-31T09:11:55Z</time>
      </trkpt>
      <trkpt lat="42.44285" lon="0.06107">
        <ele>721.8</ele>
        <time>2016-07-31T09:11:57Z</time>
      </trkpt>
      <trkpt lat="42.44288" lon="0.0611">
        <ele>720.7</ele>
        <time>2016-07-31T09:11:59Z</time>
      </trkpt>
      <trkpt lat="42.4429" lon="0.06114">
        <ele>719.5</ele>
        <time>2016-07-31T09:12:01Z</time>
      </trkpt>
      <trkpt lat="42.44293" lon="0.06118">
        <ele>718.3</ele>
        <time>2016-07-31T09:12:03Z</time>
      </trkpt>
      <trkpt lat="42.44296" lon="0.06122">
        <ele>717.4</ele>
        <time>2016-07-31T09:12:05Z</time>
      </trkpt>
      <trkpt lat="42.44299" lon="0.06126">
        <ele>716.7</ele>
        <time>2016-07-31T09:12:07Z</time>
      </trkpt>
      <trkpt lat="42.44302" lon="0.06129">
        <ele>716</ele>
        <time>2016-07-31T09:12:09Z</time>
      </trkpt>
      <trkpt lat="42.44305" lon="0.06133">
        <ele>715.4</ele>
        <time>2016-07-31T09:12:11Z</time>
      </trkpt>
      <trkpt lat="42.44307" lon="0.06136">
        <ele>714.8</ele>
        <time>2016-07-31T09:12:13Z</time>
      </trkpt>
      <trkpt lat="42.4431" lon="0.06139">
        <ele>714.2</ele>
        <time>2016-07-31T09:12:15Z</time>
      </trkpt>
      <trkpt lat="42.44313" lon="0.06142">
        <ele>713.8</ele>
        <time>2016-07-31T09:12:17Z</time>
      </trkpt>
      <trkpt lat="42.44316" lon="0.06144">
        <ele>713.5</ele>
        <time>2016-07-31T09:12:19Z</time>
      </trkpt>
      <trkpt lat="42.44319" lon="0.06146">
        <ele>713.3</ele>
        <time>2016-07-31T09:12:21Z</time>
      </trkpt>
      <trkpt lat="42.44323" lon="0.06148">
        <ele>713.2</ele>
        <time>2016-07-31T09:12:23Z</time>
      </trkpt>
      <trkpt lat="42.44326" lon="0.06149">
        <ele>713.2</ele>
        <time>2016-07-31T09:12:25Z</time>
      </trkpt>
      <trkpt lat="42.44329" lon="0.06151">
        <ele>713.1</ele>
        <time>2016-07-31T09:12:27Z</time>
      </trkpt>
      <trkpt lat="42.44331" lon="0.06153">
        <ele>712.8</ele>
        <time>2016-07-31T09:12:29Z</time>
      </trkpt>
      <trkpt lat="42.44334" lon="0.06153">
        <ele>713.1</ele>
        <time>2016-07-31T09:12:31Z</time>
      </trkpt>
      <trkpt lat="42.44336" lon="0.0615">
        <ele>714.3</ele>
        <time>2016-07-31T09:12:33Z</time>
      </trkpt>
      <trkpt lat="42.44337" lon="0.06145">
        <ele>715.8</ele>
        <time>2016-07-31T09:12:35Z</time>
      </trkpt>
      <trkpt lat="42.44336" lon="0.0614">
        <ele>717.1</ele>
        <time>2016-07-31T09:12:37Z</time>
      </trkpt>
      <trkpt lat="42.44334" lon="0.06136">
        <ele>717.9</ele>
        <time>2016-07-31T09:12:39Z</time>
      </trkpt>
      <trkpt lat="42.44331" lon="0.06133">
        <ele>718.4</ele>
        <time>2016-07-31T09:12:41Z</time>
      </trkpt>
      <trkpt lat="42.44328" lon="0.0613">
        <ele>719</ele>
        <time>2016-07-31T09:12:43Z</time>
      </trkpt>
      <trkpt lat="42.44326" lon="0.06127">
        <ele>719.6</ele>
        <time>2016-07-31T09:12:45Z</time>
      </trkpt>
      <trkpt lat="42.44324" lon="0.06124">
        <ele>720.1</ele>
        <time>2016-07-31T09:12:47Z</time>
      </trkpt>
      <trkpt lat="42.44321" lon="0.06121">
        <ele>720.8</ele>
        <time>2016-07-31T09:12:49Z</time>
      </trkpt>
      <trkpt lat="42.4432" lon="0.06118">
        <ele>721.7</ele>
        <time>2016-07-31T09:12:51Z</time>
      </trkpt>
      <trkpt lat="42.44319" lon="0.06115">
        <ele>722.6</ele>
        <time>2016-07-31T09:12:53Z</time>
      </trkpt>
      <trkpt lat="42.44316" lon="0.06111">
        <ele>723.4</ele>
        <time>2016-07-31T09:12:55Z</time>
      </trkpt>
      <trkpt lat="42.44314" lon="0.06108">
        <ele>724.1</ele>
        <time>2016-07-31T09:12:57Z</time>
      </trkpt>
      <trkpt lat="42.44312" lon="0.06105">
        <ele>724.9</ele>
        <time>2016-07-31T09:12:59Z</time>
      </trkpt>
      <trkpt lat="42.4431" lon="0.06102">
        <ele>725.6</ele>
        <time>2016-07-31T09:13:01Z</time>
      </trkpt>
      <trkpt lat="42.44308" lon="0.06099">
        <ele>726.4</ele>
        <time>2016-07-31T09:13:03Z</time>
      </trkpt>
      <trkpt lat="42.44306" lon="0.06095">
        <ele>727.3</ele>
        <time>2016-07-31T09:13:05Z</time>
      </trkpt>
      <trkpt lat="42.44304" lon="0.06092">
        <ele>728.2</ele>
        <time>2016-07-31T09:13:07Z</time>
      </trkpt>
      <trkpt lat="42.44302" lon="0.06089">
        <ele>729</ele>
        <time>2016-07-31T09:13:09Z</time>
      </trkpt>
      <trkpt lat="42.443" lon="0.06085">
        <ele>730</ele>
        <time>2016-07-31T09:13:11Z</time>
      </trkpt>
      <trkpt lat="42.44298" lon="0.06081">
        <ele>730.9</ele>
        <time>2016-07-31T09:13:13Z</time>
      </trkpt>
      <trkpt lat="42.44296" lon="0.06078">
        <ele>731.7</ele>
        <time>2016-07-31T09:13:15Z</time>
      </trkpt>
      <trkpt lat="42.44294" lon="0.06075">
        <ele>732.6</ele>
        <time>2016-07-31T09:13:17Z</time>
      </trkpt>
      <trkpt lat="42.44292" lon="0.06071">
        <ele>733.4</ele>
        <time>2016-07-31T09:13:19Z</time>
      </trkpt>
      <trkpt lat="42.4429" lon="0.06068">
        <ele>734.4</ele>
        <time>2016-07-31T09:13:21Z</time>
      </trkpt>
      <trkpt lat="42.44288" lon="0.06064">
        <ele>735.7</ele>
        <time>2016-07-31T09:13:23Z</time>
      </trkpt>
      <trkpt lat="42.44286" lon="0.0606">
        <ele>736.8</ele>
        <time>2016-07-31T09:13:25Z</time>
      </trkpt>
      <trkpt lat="42.44284" lon="0.06057">
        <ele>737.7</ele>
        <time>2016-07-31T09:13:27Z</time>
      </trkpt>
      <trkpt lat="42.44281" lon="0.06052">
        <ele>739.3</ele>
        <time>2016-07-31T09:13:30Z</time>
      </trkpt>
      <trkpt lat="42.44279" lon="0.06049">
        <ele>740.2</ele>
        <time>2016-07-31T09:13:32Z</time>
      </trkpt>
      <trkpt lat="42.44276" lon="0.06046">
        <ele>741</ele>
        <time>2016-07-31T09:13:34Z</time>
      </trkpt>
      <trkpt lat="42.44273" lon="0.06043">
        <ele>741.8</ele>
        <time>2016-07-31T09:13:36Z</time>
      </trkpt>
      <trkpt lat="42.44269" lon="0.0604">
        <ele>742.6</ele>
        <time>2016-07-31T09:13:38Z</time>
      </trkpt>
      <trkpt lat="42.44265" lon="0.06037">
        <ele>743.2</ele>
        <time>2016-07-31T09:13:40Z</time>
      </trkpt>
      <trkpt lat="42.44261" lon="0.06035">
        <ele>743.5</ele>
        <time>2016-07-31T09:13:42Z</time>
      </trkpt>
      <trkpt lat="42.44256" lon="0.06034">
        <ele>743.7</ele>
        <time>2016-07-31T09:13:44Z</time>
      </trkpt>
      <trkpt lat="42.44252" lon="0.06033">
        <ele>743.8</ele>
        <time>2016-07-31T09:13:46Z</time>
      </trkpt>
      <trkpt lat="42.44247" lon="0.06033">
        <ele>743.6</ele>
        <time>2016-07-31T09:13:48Z</time>
      </trkpt>
      <trkpt lat="42.44243" lon="0.06034">
        <ele>742.8</ele>
        <time>2016-07-31T09:13:50Z</time>
      </trkpt>
      <trkpt lat="42.44239" lon="0.06037">
        <ele>741.8</ele>
        <time>2016-07-31T09:13:52Z</time>
      </trkpt>
      <trkpt lat="42.44235" lon="0.0604">
        <ele>740.7</ele>
        <time>2016-07-31T09:13:54Z</time>
      </trkpt>
      <trkpt lat="42.44231" lon="0.06043">
        <ele>739.7</ele>
        <time>2016-07-31T09:13:56Z</time>
      </trkpt>
      <trkpt lat="42.44227" lon="0.06045">
        <ele>738.8</ele>
        <time>2016-07-31T09:13:58Z</time>
      </trkpt>
      <trkpt lat="42.44223" lon="0.06046">
        <ele>738.3</ele>
        <time>2016-07-31T09:14:00Z</time>
      </trkpt>
      <trkpt lat="42.44219" lon="0.06046">
        <ele>738.4</ele>
        <time>2016-07-31T09:14:02Z</time>
      </trkpt>
      <trkpt lat="42.44216" lon="0.06045">
        <ele>738.5</ele>
        <time>2016-07-31T09:14:04Z</time>
      </trkpt>
      <trkpt lat="42.44212" lon="0.06044">
        <ele>738.6</ele>
        <time>2016-07-31T09:14:06Z</time>
      </trkpt>
      <trkpt lat="42.44208" lon="0.06043">
        <ele>738.6</ele>
        <time>2016-07-31T09:14:08Z</time>
      </trkpt>
      <trkpt lat="42.44204" lon="0.06042">
        <ele>738.6</ele>
        <time>2016-07-31T09:14:10Z</time>
      </trkpt>
      <trkpt lat="42.442" lon="0.0604">
        <ele>738.6</ele>
        <time>2016-07-31T09:14:12Z</time>
      </trkpt>
      <trkpt lat="42.44196" lon="0.06038">
        <ele>738.6</ele>
        <time>2016-07-31T09:14:14Z</time>
      </trkpt>
      <trkpt lat="42.44192" lon="0.06037">
        <ele>738.7</ele>
        <time>2016-07-31T09:14:16Z</time>
      </trkpt>
      <trkpt lat="42.44189" lon="0.06035">
        <ele>738.7</ele>
        <time>2016-07-31T09:14:18Z</time>
      </trkpt>
      <trkpt lat="42.44185" lon="0.06034">
        <ele>738.8</ele>
        <time>2016-07-31T09:14:20Z</time>
      </trkpt>
      <trkpt lat="42.44181" lon="0.06032">
        <ele>738.8</ele>
        <time>2016-07-31T09:14:22Z</time>
      </trkpt>
      <trkpt lat="42.44178" lon="0.0603">
        <ele>739</ele>
        <time>2016-07-31T09:14:24Z</time>
      </trkpt>
      <trkpt lat="42.44174" lon="0.06028">
        <ele>739.4</ele>
        <time>2016-07-31T09:14:26Z</time>
      </trkpt>
      <trkpt lat="42.44171" lon="0.06025">
        <ele>739.7</ele>
        <time>2016-07-31T09:14:28Z</time>
      </trkpt>
      <trkpt lat="42.44167" lon="0.06022">
        <ele>740.2</ele>
        <time>2016-07-31T09:14:30Z</time>
      </trkpt>
      <trkpt lat="42.44164" lon="0.06019">
        <ele>740.8</ele>
        <time>2016-07-31T09:14:32Z</time>
      </trkpt>
      <trkpt lat="42.4416" lon="0.06015">
        <ele>741.4</ele>
        <time>2016-07-31T09:14:34Z</time>
      </trkpt>
      <trkpt lat="42.44157" lon="0.06011">
        <ele>742.2</ele>
        <time>2016-07-31T09:14:36Z</time>
      </trkpt>
      <trkpt lat="42.44154" lon="0.06007">
        <ele>743.1</ele>
        <time>2016-07-31T09:14:38Z</time>
      </trkpt>
      <trkpt lat="42.4415" lon="0.06003">
        <ele>743.9</ele>
        <time>2016-07-31T09:14:40Z</time>
      </trkpt>
      <trkpt lat="42.44146" lon="0.06">
        <ele>744.5</ele>
        <time>2016-07-31T09:14:42Z</time>
      </trkpt>
      <trkpt lat="42.44143" lon="0.05996">
        <ele>745</ele>
        <time>2016-07-31T09:14:44Z</time>
      </trkpt>
      <trkpt lat="42.44139" lon="0.05993">
        <ele>745.7</ele>
        <time>2016-07-31T09:14:46Z</time>
      </trkpt>
      <trkpt lat="42.44135" lon="0.05989">
        <ele>746.3</ele>
        <time>2016-07-31T09:14:48Z</time>
      </trkpt>
      <trkpt lat="42.44131" lon="0.05986">
        <ele>746.7</ele>
        <time>2016-07-31T09:14:50Z</time>
      </trkpt>
      <trkpt lat="42.44127" lon="0.05983">
        <ele>747.2</ele>
        <time>2016-07-31T09:14:52Z</time>
      </trkpt>
      <trkpt lat="42.44123" lon="0.0598">
        <ele>747.7</ele>
        <time>2016-07-31T09:14:54Z</time>
      </trkpt>
      <trkpt lat="42.44118" lon="0.05978">
        <ele>748.3</ele>
        <time>2016-07-31T09:14:56Z</time>
      </trkpt>
      <trkpt lat="42.44114" lon="0.05976">
        <ele>749</ele>
        <time>2016-07-31T09:14:58Z</time>
      </trkpt>
      <trkpt lat="42.44109" lon="0.05975">
        <ele>749.6</ele>
        <time>2016-07-31T09:15:00Z</time>
      </trkpt>
      <trkpt lat="42.44105" lon="0.05972">
        <ele>750.2</ele>
        <time>2016-07-31T09:15:02Z</time>
      </trkpt>
      <trkpt lat="42.441" lon="0.0597">
        <ele>750.8</ele>
        <time>2016-07-31T09:15:04Z</time>
      </trkpt>
      <trkpt lat="42.44096" lon="0.05968">
        <ele>751.4</ele>
        <time>2016-07-31T09:15:06Z</time>
      </trkpt>
      <trkpt lat="42.44092" lon="0.05966">
        <ele>752.1</ele>
        <time>2016-07-31T09:15:08Z</time>
      </trkpt>
      <trkpt lat="42.44088" lon="0.05963">
        <ele>752.8</ele>
        <time>2016-07-31T09:15:10Z</time>
      </trkpt>
      <trkpt lat="42.44084" lon="0.0596">
        <ele>753.5</ele>
        <time>2016-07-31T09:15:12Z</time>
      </trkpt>
      <trkpt lat="42.44081" lon="0.05958">
        <ele>754.1</ele>
        <time>2016-07-31T09:15:14Z</time>
      </trkpt>
      <trkpt lat="42.44077" lon="0.05955">
        <ele>754.6</ele>
        <time>2016-07-31T09:15:16Z</time>
      </trkpt>
      <trkpt lat="42.44073" lon="0.05953">
        <ele>755</ele>
        <time>2016-07-31T09:15:18Z</time>
      </trkpt>
      <trkpt lat="42.4407" lon="0.0595">
        <ele>755.5</ele>
        <time>2016-07-31T09:15:20Z</time>
      </trkpt>
      <trkpt lat="42.44066" lon="0.05948">
        <ele>755.9</ele>
        <time>2016-07-31T09:15:22Z</time>
      </trkpt>
      <trkpt lat="42.44063" lon="0.05946">
        <ele>756.3</ele>
        <time>2016-07-31T09:15:24Z</time>
      </trkpt>
      <trkpt lat="42.4406" lon="0.05944">
        <ele>756.7</ele>
        <time>2016-07-31T09:15:26Z</time>
      </trkpt>
      <trkpt lat="42.44057" lon="0.05941">
        <ele>757.1</ele>
        <time>2016-07-31T09:15:28Z</time>
      </trkpt>
      <trkpt lat="42.44054" lon="0.05939">
        <ele>757.5</ele>
        <time>2016-07-31T09:15:30Z</time>
      </trkpt>
      <trkpt lat="42.4405" lon="0.05937">
        <ele>757.7</ele>
        <time>2016-07-31T09:15:32Z</time>
      </trkpt>
      <trkpt lat="42.44046" lon="0.05936">
        <ele>757.8</ele>
        <time>2016-07-31T09:15:34Z</time>
      </trkpt>
      <trkpt lat="42.44042" lon="0.05935">
        <ele>757.9</ele>
        <time>2016-07-31T09:15:36Z</time>
      </trkpt>
      <trkpt lat="42.44038" lon="0.05934">
        <ele>758.1</ele>
        <time>2016-07-31T09:15:38Z</time>
      </trkpt>
      <trkpt lat="42.44034" lon="0.05933">
        <ele>758.2</ele>
        <time>2016-07-31T09:15:40Z</time>
      </trkpt>
      <trkpt lat="42.44031" lon="0.05931">
        <ele>758.4</ele>
        <time>2016-07-31T09:15:42Z</time>
      </trkpt>
      <trkpt lat="42.44028" lon="0.0593">
        <ele>758.5</ele>
        <time>2016-07-31T09:15:44Z</time>
      </trkpt>
      <trkpt lat="42.44025" lon="0.0593">
        <ele>758.6</ele>
        <time>2016-07-31T09:15:46Z</time>
      </trkpt>
      <trkpt lat="42.44021" lon="0.05929">
        <ele>758.6</ele>
        <time>2016-07-31T09:15:48Z</time>
      </trkpt>
      <trkpt lat="42.44018" lon="0.05929">
        <ele>758.6</ele>
        <time>2016-07-31T09:15:50Z</time>
      </trkpt>
      <trkpt lat="42.44015" lon="0.05928">
        <ele>758.7</ele>
        <time>2016-07-31T09:15:52Z</time>
      </trkpt>
      <trkpt lat="42.44011" lon="0.05927">
        <ele>758.8</ele>
        <time>2016-07-31T09:15:54Z</time>
      </trkpt>
      <trkpt lat="42.44008" lon="0.05926">
        <ele>759</ele>
        <time>2016-07-31T09:15:56Z</time>
      </trkpt>
      <trkpt lat="42.44005" lon="0.05924">
        <ele>759.2</ele>
        <time>2016-07-31T09:15:58Z</time>
      </trkpt>
      <trkpt lat="42.44002" lon="0.05922">
        <ele>759.4</ele>
        <time>2016-07-31T09:16:00Z</time>
      </trkpt>
      <trkpt lat="42.44" lon="0.05922">
        <ele>759.4</ele>
        <time>2016-07-31T09:16:02Z</time>
      </trkpt>
      <trkpt lat="42.43997" lon="0.05921">
        <ele>759.6</ele>
        <time>2016-07-31T09:16:04Z</time>
      </trkpt>
      <trkpt lat="42.43994" lon="0.0592">
        <ele>759.7</ele>
        <time>2016-07-31T09:16:06Z</time>
      </trkpt>
      <trkpt lat="42.43991" lon="0.05919">
        <ele>759.8</ele>
        <time>2016-07-31T09:16:08Z</time>
      </trkpt>
      <trkpt lat="42.43988" lon="0.05917">
        <ele>760</ele>
        <time>2016-07-31T09:16:10Z</time>
      </trkpt>
      <trkpt lat="42.43985" lon="0.05916">
        <ele>760.1</ele>
        <time>2016-07-31T09:16:12Z</time>
      </trkpt>
      <trkpt lat="42.43981" lon="0.05915">
        <ele>760.2</ele>
        <time>2016-07-31T09:16:14Z</time>
      </trkpt>
      <trkpt lat="42.43978" lon="0.05913">
        <ele>760.4</ele>
        <time>2016-07-31T09:16:16Z</time>
      </trkpt>
      <trkpt lat="42.43975" lon="0.05912">
        <ele>760.5</ele>
        <time>2016-07-31T09:16:18Z</time>
      </trkpt>
      <trkpt lat="42.43971" lon="0.05911">
        <ele>760.7</ele>
        <time>2016-07-31T09:16:20Z</time>
      </trkpt>
      <trkpt lat="42.43968" lon="0.0591">
        <ele>760.8</ele>
        <time>2016-07-31T09:16:22Z</time>
      </trkpt>
      <trkpt lat="42.43965" lon="0.05909">
        <ele>760.9</ele>
        <time>2016-07-31T09:16:24Z</time>
      </trkpt>
      <trkpt lat="42.43961" lon="0.05908">
        <ele>760.9</ele>
        <time>2016-07-31T09:16:26Z</time>
      </trkpt>
      <trkpt lat="42.43958" lon="0.05908">
        <ele>760.8</ele>
        <time>2016-07-31T09:16:28Z</time>
      </trkpt>
      <trkpt lat="42.43955" lon="0.05908">
        <ele>760.7</ele>
        <time>2016-07-31T09:16:30Z</time>
      </trkpt>
      <trkpt lat="42.43951" lon="0.05907">
        <ele>760.7</ele>
        <time>2016-07-31T09:16:32Z</time>
      </trkpt>
      <trkpt lat="42.43948" lon="0.05906">
        <ele>760.6</ele>
        <time>2016-07-31T09:16:34Z</time>
      </trkpt>
      <trkpt lat="42.43944" lon="0.05905">
        <ele>760.6</ele>
        <time>2016-07-31T09:16:36Z</time>
      </trkpt>
      <trkpt lat="42.4394" lon="0.05904">
        <ele>760.6</ele>
        <time>2016-07-31T09:16:38Z</time>
      </trkpt>
      <trkpt lat="42.43936" lon="0.05903">
        <ele>760.6</ele>
        <time>2016-07-31T09:16:40Z</time>
      </trkpt>
      <trkpt lat="42.43932" lon="0.05901">
        <ele>760.7</ele>
        <time>2016-07-31T09:16:42Z</time>
      </trkpt>
      <trkpt lat="42.43928" lon="0.059">
        <ele>760.8</ele>
        <time>2016-07-31T09:16:44Z</time>
      </trkpt>
      <trkpt lat="42.43924" lon="0.05899">
        <ele>760.8</ele>
        <time>2016-07-31T09:16:46Z</time>
      </trkpt>
      <trkpt lat="42.4392" lon="0.05896">
        <ele>761.2</ele>
        <time>2016-07-31T09:16:48Z</time>
      </trkpt>
      <trkpt lat="42.43918" lon="0.05892">
        <ele>761.9</ele>
        <time>2016-07-31T09:16:50Z</time>
      </trkpt>
      <trkpt lat="42.43917" lon="0.05887">
        <ele>763</ele>
        <time>2016-07-31T09:16:52Z</time>
      </trkpt>
      <trkpt lat="42.43918" lon="0.05882">
        <ele>764.1</ele>
        <time>2016-07-31T09:16:54Z</time>
      </trkpt>
      <trkpt lat="42.4392" lon="0.05878">
        <ele>764.9</ele>
        <time>2016-07-31T09:16:56Z</time>
      </trkpt>
      <trkpt lat="42.43924" lon="0.05875">
        <ele>765.5</ele>
        <time>2016-07-31T09:16:58Z</time>
      </trkpt>
      <trkpt lat="42.43928" lon="0.05874">
        <ele>765.9</ele>
        <time>2016-07-31T09:17:00Z</time>
      </trkpt>
      <trkpt lat="42.43932" lon="0.05873">
        <ele>766.1</ele>
        <time>2016-07-31T09:17:02Z</time>
      </trkpt>
      <trkpt lat="42.43936" lon="0.05872">
        <ele>766.4</ele>
        <time>2016-07-31T09:17:04Z</time>
      </trkpt>
      <trkpt lat="42.4394" lon="0.05871">
        <ele>766.6</ele>
        <time>2016-07-31T09:17:06Z</time>
      </trkpt>
      <trkpt lat="42.43944" lon="0.0587">
        <ele>766.9</ele>
        <time>2016-07-31T09:17:08Z</time>
      </trkpt>
      <trkpt lat="42.43948" lon="0.05868">
        <ele>767.3</ele>
        <time>2016-07-31T09:17:10Z</time>
      </trkpt>
      <trkpt lat="42.43951" lon="0.05866">
        <ele>767.7</ele>
        <time>2016-07-31T09:17:12Z</time>
      </trkpt>
      <trkpt lat="42.43955" lon="0.05865">
        <ele>768.1</ele>
        <time>2016-07-31T09:17:14Z</time>
      </trkpt>
      <trkpt lat="42.43958" lon="0.05863">
        <ele>768.5</ele>
        <time>2016-07-31T09:17:16Z</time>
      </trkpt>
      <trkpt lat="42.43962" lon="0.05861">
        <ele>768.9</ele>
        <time>2016-07-31T09:17:18Z</time>
      </trkpt>
      <trkpt lat="42.43965" lon="0.05859">
        <ele>769.3</ele>
        <time>2016-07-31T09:17:20Z</time>
      </trkpt>
      <trkpt lat="42.43968" lon="0.05858">
        <ele>769.7</ele>
        <time>2016-07-31T09:17:22Z</time>
      </trkpt>
      <trkpt lat="42.43972" lon="0.05856">
        <ele>770.2</ele>
        <time>2016-07-31T09:17:24Z</time>
      </trkpt>
      <trkpt lat="42.43975" lon="0.05854">
        <ele>770.6</ele>
        <time>2016-07-31T09:17:26Z</time>
      </trkpt>
      <trkpt lat="42.43978" lon="0.05853">
        <ele>770.9</ele>
        <time>2016-07-31T09:17:28Z</time>
      </trkpt>
      <trkpt lat="42.43981" lon="0.05851">
        <ele>771.2</ele>
        <time>2016-07-31T09:17:30Z</time>
      </trkpt>
      <trkpt lat="42.43985" lon="0.0585">
        <ele>771.6</ele>
        <time>2016-07-31T09:17:32Z</time>
      </trkpt>
      <trkpt lat="42.43989" lon="0.05848">
        <ele>772.1</ele>
        <time>2016-07-31T09:17:34Z</time>
      </trkpt>
      <trkpt lat="42.43993" lon="0.05846">
        <ele>772.5</ele>
        <time>2016-07-31T09:17:36Z</time>
      </trkpt>
      <trkpt lat="42.43996" lon="0.05844">
        <ele>772.8</ele>
        <time>2016-07-31T09:17:38Z</time>
      </trkpt>
      <trkpt lat="42.44" lon="0.05843">
        <ele>773.2</ele>
        <time>2016-07-31T09:17:40Z</time>
      </trkpt>
      <trkpt lat="42.44005" lon="0.05841">
        <ele>773.6</ele>
        <time>2016-07-31T09:17:42Z</time>
      </trkpt>
      <trkpt lat="42.44009" lon="0.05839">
        <ele>774</ele>
        <time>2016-07-31T09:17:44Z</time>
      </trkpt>
      <trkpt lat="42.44013" lon="0.05838">
        <ele>774.2</ele>
        <time>2016-07-31T09:17:46Z</time>
      </trkpt>
      <trkpt lat="42.44016" lon="0.05838">
        <ele>774.4</ele>
        <time>2016-07-31T09:17:48Z</time>
      </trkpt>
      <trkpt lat="42.4402" lon="0.05837">
        <ele>774.5</ele>
        <time>2016-07-31T09:17:50Z</time>
      </trkpt>
      <trkpt lat="42.44024" lon="0.05836">
        <ele>774.8</ele>
        <time>2016-07-31T09:17:52Z</time>
      </trkpt>
      <trkpt lat="42.44027" lon="0.05835">
        <ele>775.1</ele>
        <time>2016-07-31T09:17:54Z</time>
      </trkpt>
      <trkpt lat="42.4403" lon="0.05833">
        <ele>775.4</ele>
        <time>2016-07-31T09:17:56Z</time>
      </trkpt>
      <trkpt lat="42.44034" lon="0.05834">
        <ele>775.4</ele>
        <time>2016-07-31T09:17:58Z</time>
      </trkpt>
      <trkpt lat="42.44038" lon="0.05834">
        <ele>775.4</ele>
        <time>2016-07-31T09:18:00Z</time>
      </trkpt>
      <trkpt lat="42.44041" lon="0.05834">
        <ele>775.4</ele>
        <time>2016-07-31T09:18:02Z</time>
      </trkpt>
      <trkpt lat="42.44045" lon="0.05835">
        <ele>775.5</ele>
        <time>2016-07-31T09:18:04Z</time>
      </trkpt>
      <trkpt lat="42.44049" lon="0.05836">
        <ele>775.6</ele>
        <time>2016-07-31T09:18:06Z</time>
      </trkpt>
      <trkpt lat="42.44052" lon="0.05837">
        <ele>775.7</ele>
        <time>2016-07-31T09:18:08Z</time>
      </trkpt>
      <trkpt lat="42.44056" lon="0.05838">
        <ele>775.8</ele>
        <time>2016-07-31T09:18:10Z</time>
      </trkpt>
      <trkpt lat="42.4406" lon="0.05839">
        <ele>775.9</ele>
        <time>2016-07-31T09:18:12Z</time>
      </trkpt>
      <trkpt lat="42.44063" lon="0.05838">
        <ele>776.5</ele>
        <time>2016-07-31T09:18:14Z</time>
      </trkpt>
      <trkpt lat="42.44065" lon="0.05832">
        <ele>777.7</ele>
        <time>2016-07-31T09:18:16Z</time>
      </trkpt>
      <trkpt lat="42.44065" lon="0.05826">
        <ele>778.8</ele>
        <time>2016-07-31T09:18:18Z</time>
      </trkpt>
      <trkpt lat="42.44061" lon="0.05821">
        <ele>779.4</ele>
        <time>2016-07-31T09:18:20Z</time>
      </trkpt>
      <trkpt lat="42.44058" lon="0.05818">
        <ele>779.7</ele>
        <time>2016-07-31T09:18:22Z</time>
      </trkpt>
      <trkpt lat="42.44054" lon="0.05816">
        <ele>779.8</ele>
        <time>2016-07-31T09:18:24Z</time>
      </trkpt>
      <trkpt lat="42.44051" lon="0.05815">
        <ele>779.7</ele>
        <time>2016-07-31T09:18:26Z</time>
      </trkpt>
      <trkpt lat="42.44047" lon="0.05814">
        <ele>779.5</ele>
        <time>2016-07-31T09:18:28Z</time>
      </trkpt>
      <trkpt lat="42.44044" lon="0.05813">
        <ele>779.4</ele>
        <time>2016-07-31T09:18:30Z</time>
      </trkpt>
      <trkpt lat="42.4404" lon="0.05811">
        <ele>779.5</ele>
        <time>2016-07-31T09:18:32Z</time>
      </trkpt>
      <trkpt lat="42.44037" lon="0.05809">
        <ele>779.9</ele>
        <time>2016-07-31T09:18:34Z</time>
      </trkpt>
      <trkpt lat="42.44034" lon="0.05807">
        <ele>780.2</ele>
        <time>2016-07-31T09:18:36Z</time>
      </trkpt>
      <trkpt lat="42.44031" lon="0.05805">
        <ele>780.5</ele>
        <time>2016-07-31T09:18:38Z</time>
      </trkpt>
      <trkpt lat="42.44028" lon="0.05804">
        <ele>780.8</ele>
        <time>2016-07-31T09:18:40Z</time>
      </trkpt>
      <trkpt lat="42.44025" lon="0.05802">
        <ele>781.1</ele>
        <time>2016-07-31T09:18:42Z</time>
      </trkpt>
      <trkpt lat="42.44022" lon="0.058">
        <ele>781.4</ele>
        <time>2016-07-31T09:18:44Z</time>
      </trkpt>
      <trkpt lat="42.44019" lon="0.05799">
        <ele>781.7</ele>
        <time>2016-07-31T09:18:46Z</time>
      </trkpt>
      <trkpt lat="42.44016" lon="0.05796">
        <ele>782.1</ele>
        <time>2016-07-31T09:18:48Z</time>
      </trkpt>
      <trkpt lat="42.44013" lon="0.05794">
        <ele>782.6</ele>
        <time>2016-07-31T09:18:50Z</time>
      </trkpt>
      <trkpt lat="42.4401" lon="0.05791">
        <ele>783.3</ele>
        <time>2016-07-31T09:18:52Z</time>
      </trkpt>
      <trkpt lat="42.44008" lon="0.05787">
        <ele>784.2</ele>
        <time>2016-07-31T09:18:54Z</time>
      </trkpt>
      <trkpt lat="42.44005" lon="0.05784">
        <ele>785</ele>
        <time>2016-07-31T09:18:56Z</time>
      </trkpt>
      <trkpt lat="42.44002" lon="0.05782">
        <ele>785.6</ele>
        <time>2016-07-31T09:18:58Z</time>
      </trkpt>
      <trkpt lat="42.43998" lon="0.05779">
        <ele>786.1</ele>
        <time>2016-07-31T09:19:00Z</time>
      </trkpt>
      <trkpt lat="42.43995" lon="0.05776">
        <ele>787</ele>
        <time>2016-07-31T09:19:02Z</time>
      </trkpt>
      <trkpt lat="42.43992" lon="0.05772">
        <ele>788</ele>
        <time>2016-07-31T09:19:04Z</time>
      </trkpt>
      <trkpt lat="42.43989" lon="0.05768">
        <ele>788.9</ele>
        <time>2016-07-31T09:19:06Z</time>
      </trkpt>
      <trkpt lat="42.43986" lon="0.05764">
        <ele>789.8</ele>
        <time>2016-07-31T09:19:08Z</time>
      </trkpt>
      <trkpt lat="42.43984" lon="0.0576">
        <ele>790.7</ele>
        <time>2016-07-31T09:19:10Z</time>
      </trkpt>
      <trkpt lat="42.43981" lon="0.05757">
        <ele>791.6</ele>
        <time>2016-07-31T09:19:12Z</time>
      </trkpt>
      <trkpt lat="42.43978" lon="0.05753">
        <ele>792.3</ele>
        <time>2016-07-31T09:19:14Z</time>
      </trkpt>
      <trkpt lat="42.43975" lon="0.0575">
        <ele>793</ele>
        <time>2016-07-31T09:19:16Z</time>
      </trkpt>
      <trkpt lat="42.43971" lon="0.05748">
        <ele>793.4</ele>
        <time>2016-07-31T09:19:18Z</time>
      </trkpt>
      <trkpt lat="42.43968" lon="0.05746">
        <ele>793.7</ele>
        <time>2016-07-31T09:19:20Z</time>
      </trkpt>
      <trkpt lat="42.43964" lon="0.05745">
        <ele>793.9</ele>
        <time>2016-07-31T09:19:22Z</time>
      </trkpt>
      <trkpt lat="42.4396" lon="0.05744">
        <ele>793.9</ele>
        <time>2016-07-31T09:19:24Z</time>
      </trkpt>
      <trkpt lat="42.43957" lon="0.05744">
        <ele>793.9</ele>
        <time>2016-07-31T09:19:26Z</time>
      </trkpt>
      <trkpt lat="42.43954" lon="0.05744">
        <ele>793.7</ele>
        <time>2016-07-31T09:19:28Z</time>
      </trkpt>
      <trkpt lat="42.4395" lon="0.05744">
        <ele>793.5</ele>
        <time>2016-07-31T09:19:30Z</time>
      </trkpt>
      <trkpt lat="42.43946" lon="0.05744">
        <ele>793.4</ele>
        <time>2016-07-31T09:19:32Z</time>
      </trkpt>
      <trkpt lat="42.43942" lon="0.05743">
        <ele>793.3</ele>
        <time>2016-07-31T09:19:34Z</time>
      </trkpt>
      <trkpt lat="42.43939" lon="0.05742">
        <ele>793.4</ele>
        <time>2016-07-31T09:19:36Z</time>
      </trkpt>
      <trkpt lat="42.43935" lon="0.05741">
        <ele>793.4</ele>
        <time>2016-07-31T09:19:38Z</time>
      </trkpt>
      <trkpt lat="42.43931" lon="0.0574">
        <ele>793.4</ele>
        <time>2016-07-31T09:19:40Z</time>
      </trkpt>
      <trkpt lat="42.43926" lon="0.05739">
        <ele>793.3</ele>
        <time>2016-07-31T09:19:42Z</time>
      </trkpt>
      <trkpt lat="42.43922" lon="0.05739">
        <ele>793.2</ele>
        <time>2016-07-31T09:19:44Z</time>
      </trkpt>
      <trkpt lat="42.43918" lon="0.05738">
        <ele>793</ele>
        <time>2016-07-31T09:19:46Z</time>
      </trkpt>
      <trkpt lat="42.43914" lon="0.05738">
        <ele>792.8</ele>
        <time>2016-07-31T09:19:48Z</time>
      </trkpt>
      <trkpt lat="42.43909" lon="0.05738">
        <ele>792.6</ele>
        <time>2016-07-31T09:19:50Z</time>
      </trkpt>
      <trkpt lat="42.43905" lon="0.05738">
        <ele>792.4</ele>
        <time>2016-07-31T09:19:52Z</time>
      </trkpt>
      <trkpt lat="42.43901" lon="0.05737">
        <ele>792.2</ele>
        <time>2016-07-31T09:19:54Z</time>
      </trkpt>
      <trkpt lat="42.43897" lon="0.05736">
        <ele>792.2</ele>
        <time>2016-07-31T09:19:56Z</time>
      </trkpt>
      <trkpt lat="42.43893" lon="0.05735">
        <ele>792.1</ele>
        <time>2016-07-31T09:19:58Z</time>
      </trkpt>
      <trkpt lat="42.43889" lon="0.05734">
        <ele>792.1</ele>
        <time>2016-07-31T09:20:00Z</time>
      </trkpt>
      <trkpt lat="42.43886" lon="0.05733">
        <ele>792.1</ele>
        <time>2016-07-31T09:20:02Z</time>
      </trkpt>
      <trkpt lat="42.43882" lon="0.05731">
        <ele>792.1</ele>
        <time>2016-07-31T09:20:04Z</time>
      </trkpt>
      <trkpt lat="42.43879" lon="0.0573">
        <ele>792.2</ele>
        <time>2016-07-31T09:20:06Z</time>
      </trkpt>
      <trkpt lat="42.43875" lon="0.05728">
        <ele>792.3</ele>
        <time>2016-07-31T09:20:08Z</time>
      </trkpt>
      <trkpt lat="42.43872" lon="0.05726">
        <ele>792.4</ele>
        <time>2016-07-31T09:20:10Z</time>
      </trkpt>
      <trkpt lat="42.43869" lon="0.05724">
        <ele>792.5</ele>
        <time>2016-07-31T09:20:12Z</time>
      </trkpt>
      <trkpt lat="42.43865" lon="0.05722">
        <ele>792.6</ele>
        <time>2016-07-31T09:20:14Z</time>
      </trkpt>
      <trkpt lat="42.43862" lon="0.0572">
        <ele>792.6</ele>
        <time>2016-07-31T09:20:16Z</time>
      </trkpt>
      <trkpt lat="42.43858" lon="0.05719">
        <ele>792.6</ele>
        <time>2016-07-31T09:20:18Z</time>
      </trkpt>
      <trkpt lat="42.43855" lon="0.05719">
        <ele>792.5</ele>
        <time>2016-07-31T09:20:20Z</time>
      </trkpt>
      <trkpt lat="42.43851" lon="0.05718">
        <ele>792.5</ele>
        <time>2016-07-31T09:20:22Z</time>
      </trkpt>
      <trkpt lat="42.43848" lon="0.05716">
        <ele>792.7</ele>
        <time>2016-07-31T09:20:24Z</time>
      </trkpt>
      <trkpt lat="42.43845" lon="0.05713">
        <ele>792.8</ele>
        <time>2016-07-31T09:20:26Z</time>
      </trkpt>
      <trkpt lat="42.43841" lon="0.05712">
        <ele>792.9</ele>
        <time>2016-07-31T09:20:28Z</time>
      </trkpt>
      <trkpt lat="42.43838" lon="0.0571">
        <ele>793</ele>
        <time>2016-07-31T09:20:30Z</time>
      </trkpt>
      <trkpt lat="42.43835" lon="0.05708">
        <ele>793.1</ele>
        <time>2016-07-31T09:20:32Z</time>
      </trkpt>
      <trkpt lat="42.43832" lon="0.05707">
        <ele>793.3</ele>
        <time>2016-07-31T09:20:34Z</time>
      </trkpt>
      <trkpt lat="42.43829" lon="0.05705">
        <ele>793.5</ele>
        <time>2016-07-31T09:20:36Z</time>
      </trkpt>
      <trkpt lat="42.43826" lon="0.05704">
        <ele>793.6</ele>
        <time>2016-07-31T09:20:38Z</time>
      </trkpt>
      <trkpt lat="42.43823" lon="0.05703">
        <ele>793.7</ele>
        <time>2016-07-31T09:20:40Z</time>
      </trkpt>
      <trkpt lat="42.4382" lon="0.05701">
        <ele>794.1</ele>
        <time>2016-07-31T09:20:42Z</time>
      </trkpt>
      <trkpt lat="42.43818" lon="0.05697">
        <ele>794.8</ele>
        <time>2016-07-31T09:20:44Z</time>
      </trkpt>
      <trkpt lat="42.43817" lon="0.05694">
        <ele>795.5</ele>
        <time>2016-07-31T09:20:46Z</time>
      </trkpt>
      <trkpt lat="42.43815" lon="0.0569">
        <ele>796.2</ele>
        <time>2016-07-31T09:20:48Z</time>
      </trkpt>
      <trkpt lat="42.43814" lon="0.05686">
        <ele>797</ele>
        <time>2016-07-31T09:20:50Z</time>
      </trkpt>
      <trkpt lat="42.43814" lon="0.05682">
        <ele>797.8</ele>
        <time>2016-07-31T09:20:52Z</time>
      </trkpt>
      <trkpt lat="42.43814" lon="0.05679">
        <ele>798.7</ele>
        <time>2016-07-31T09:20:54Z</time>
      </trkpt>
      <trkpt lat="42.43815" lon="0.05675">
        <ele>799.7</ele>
        <time>2016-07-31T09:20:56Z</time>
      </trkpt>
      <trkpt lat="42.43817" lon="0.05671">
        <ele>800.6</ele>
        <time>2016-07-31T09:20:58Z</time>
      </trkpt>
      <trkpt lat="42.43818" lon="0.05667">
        <ele>801.6</ele>
        <time>2016-07-31T09:21:00Z</time>
      </trkpt>
      <trkpt lat="42.43818" lon="0.05663">
        <ele>802.4</ele>
        <time>2016-07-31T09:21:02Z</time>
      </trkpt>
      <trkpt lat="42.43818" lon="0.05659">
        <ele>803.4</ele>
        <time>2016-07-31T09:21:04Z</time>
      </trkpt>
      <trkpt lat="42.43818" lon="0.05654">
        <ele>804.4</ele>
        <time>2016-07-31T09:21:06Z</time>
      </trkpt>
      <trkpt lat="42.43817" lon="0.0565">
        <ele>805.1</ele>
        <time>2016-07-31T09:21:08Z</time>
      </trkpt>
      <trkpt lat="42.43815" lon="0.05647">
        <ele>805.7</ele>
        <time>2016-07-31T09:21:10Z</time>
      </trkpt>
      <trkpt lat="42.43812" lon="0.05644">
        <ele>806.2</ele>
        <time>2016-07-31T09:21:13Z</time>
      </trkpt>
      <trkpt lat="42.43809" lon="0.05643">
        <ele>806.3</ele>
        <time>2016-07-31T09:21:15Z</time>
      </trkpt>
      <trkpt lat="42.43806" lon="0.05642">
        <ele>806.3</ele>
        <time>2016-07-31T09:21:17Z</time>
      </trkpt>
      <trkpt lat="42.43803" lon="0.0564">
        <ele>806.5</ele>
        <time>2016-07-31T09:21:19Z</time>
      </trkpt>
      <trkpt lat="42.438" lon="0.05638">
        <ele>806.7</ele>
        <time>2016-07-31T09:21:21Z</time>
      </trkpt>
      <trkpt lat="42.43796" lon="0.05637">
        <ele>806.8</ele>
        <time>2016-07-31T09:21:23Z</time>
      </trkpt>
      <trkpt lat="42.43793" lon="0.05635">
        <ele>807</ele>
        <time>2016-07-31T09:21:25Z</time>
      </trkpt>
      <trkpt lat="42.43789" lon="0.05633">
        <ele>807.4</ele>
        <time>2016-07-31T09:21:27Z</time>
      </trkpt>
      <trkpt lat="42.43786" lon="0.05631">
        <ele>807.7</ele>
        <time>2016-07-31T09:21:29Z</time>
      </trkpt>
      <trkpt lat="42.43782" lon="0.05629">
        <ele>808</ele>
        <time>2016-07-31T09:21:31Z</time>
      </trkpt>
      <trkpt lat="42.43778" lon="0.05627">
        <ele>808.4</ele>
        <time>2016-07-31T09:21:33Z</time>
      </trkpt>
      <trkpt lat="42.43775" lon="0.05625">
        <ele>808.8</ele>
        <time>2016-07-31T09:21:35Z</time>
      </trkpt>
      <trkpt lat="42.43771" lon="0.05624">
        <ele>808.9</ele>
        <time>2016-07-31T09:21:37Z</time>
      </trkpt>
      <trkpt lat="42.43767" lon="0.05623">
        <ele>809.1</ele>
        <time>2016-07-31T09:21:39Z</time>
      </trkpt>
      <trkpt lat="42.43763" lon="0.05623">
        <ele>809.2</ele>
        <time>2016-07-31T09:21:41Z</time>
      </trkpt>
      <trkpt lat="42.43759" lon="0.05621">
        <ele>809.6</ele>
        <time>2016-07-31T09:21:43Z</time>
      </trkpt>
      <trkpt lat="42.43756" lon="0.05618">
        <ele>810</ele>
        <time>2016-07-31T09:21:45Z</time>
      </trkpt>
      <trkpt lat="42.43752" lon="0.05617">
        <ele>810.3</ele>
        <time>2016-07-31T09:21:47Z</time>
      </trkpt>
      <trkpt lat="42.43748" lon="0.05615">
        <ele>810.6</ele>
        <time>2016-07-31T09:21:49Z</time>
      </trkpt>
      <trkpt lat="42.43745" lon="0.05614">
        <ele>810.9</ele>
        <time>2016-07-31T09:21:51Z</time>
      </trkpt>
      <trkpt lat="42.43741" lon="0.05613">
        <ele>811.1</ele>
        <time>2016-07-31T09:21:53Z</time>
      </trkpt>
      <trkpt lat="42.43738" lon="0.05611">
        <ele>811.4</ele>
        <time>2016-07-31T09:21:55Z</time>
      </trkpt>
      <trkpt lat="42.43734" lon="0.05609">
        <ele>811.8</ele>
        <time>2016-07-31T09:21:57Z</time>
      </trkpt>
      <trkpt lat="42.43731" lon="0.05608">
        <ele>812</ele>
        <time>2016-07-31T09:21:59Z</time>
      </trkpt>
      <trkpt lat="42.43728" lon="0.05606">
        <ele>812.4</ele>
        <time>2016-07-31T09:22:01Z</time>
      </trkpt>
      <trkpt lat="42.43726" lon="0.05604">
        <ele>812.9</ele>
        <time>2016-07-31T09:22:03Z</time>
      </trkpt>
      <trkpt lat="42.43724" lon="0.056">
        <ele>813.7</ele>
        <time>2016-07-31T09:22:05Z</time>
      </trkpt>
      <trkpt lat="42.43723" lon="0.05596">
        <ele>814.5</ele>
        <time>2016-07-31T09:22:07Z</time>
      </trkpt>
      <trkpt lat="42.43725" lon="0.05592">
        <ele>815.5</ele>
        <time>2016-07-31T09:22:09Z</time>
      </trkpt>
      <trkpt lat="42.43729" lon="0.0559">
        <ele>815.8</ele>
        <time>2016-07-31T09:22:11Z</time>
      </trkpt>
      <trkpt lat="42.43734" lon="0.05591">
        <ele>815.7</ele>
        <time>2016-07-31T09:22:13Z</time>
      </trkpt>
      <trkpt lat="42.43739" lon="0.05592">
        <ele>815.6</ele>
        <time>2016-07-31T09:22:15Z</time>
      </trkpt>
      <trkpt lat="42.43742" lon="0.05593">
        <ele>815.6</ele>
        <time>2016-07-31T09:22:16Z</time>
      </trkpt>
      <trkpt lat="42.43745" lon="0.05593">
        <ele>815.6</ele>
        <time>2016-07-31T09:22:17Z</time>
      </trkpt>
      <trkpt lat="42.4375" lon="0.05592">
        <ele>815.8</ele>
        <time>2016-07-31T09:22:19Z</time>
      </trkpt>
      <trkpt lat="42.43754" lon="0.05592">
        <ele>815.9</ele>
        <time>2016-07-31T09:22:21Z</time>
      </trkpt>
      <trkpt lat="42.43758" lon="0.05593">
        <ele>815.8</ele>
        <time>2016-07-31T09:22:23Z</time>
      </trkpt>
      <trkpt lat="42.43762" lon="0.05593">
        <ele>815.9</ele>
        <time>2016-07-31T09:22:25Z</time>
      </trkpt>
      <trkpt lat="42.43766" lon="0.05592">
        <ele>816.1</ele>
        <time>2016-07-31T09:22:27Z</time>
      </trkpt>
      <trkpt lat="42.4377" lon="0.05593">
        <ele>816.1</ele>
        <time>2016-07-31T09:22:29Z</time>
      </trkpt>
      <trkpt lat="42.43774" lon="0.05594">
        <ele>815.8</ele>
        <time>2016-07-31T09:22:31Z</time>
      </trkpt>
      <trkpt lat="42.43778" lon="0.05595">
        <ele>815.7</ele>
        <time>2016-07-31T09:22:33Z</time>
      </trkpt>
      <trkpt lat="42.43782" lon="0.05596">
        <ele>815.6</ele>
        <time>2016-07-31T09:22:35Z</time>
      </trkpt>
      <trkpt lat="42.43787" lon="0.05597">
        <ele>815.4</ele>
        <time>2016-07-31T09:22:37Z</time>
      </trkpt>
      <trkpt lat="42.43792" lon="0.05598">
        <ele>815.3</ele>
        <time>2016-07-31T09:22:39Z</time>
      </trkpt>
      <trkpt lat="42.43798" lon="0.05598">
        <ele>815.6</ele>
        <time>2016-07-31T09:22:41Z</time>
      </trkpt>
      <trkpt lat="42.43803" lon="0.05599">
        <ele>815.9</ele>
        <time>2016-07-31T09:22:43Z</time>
      </trkpt>
      <trkpt lat="42.43808" lon="0.05599">
        <ele>816.3</ele>
        <time>2016-07-31T09:22:45Z</time>
      </trkpt>
      <trkpt lat="42.43813" lon="0.056">
        <ele>816.6</ele>
        <time>2016-07-31T09:22:47Z</time>
      </trkpt>
      <trkpt lat="42.43818" lon="0.05601">
        <ele>816.8</ele>
        <time>2016-07-31T09:22:49Z</time>
      </trkpt>
      <trkpt lat="42.43823" lon="0.05602">
        <ele>817</ele>
        <time>2016-07-31T09:22:51Z</time>
      </trkpt>
      <trkpt lat="42.43827" lon="0.05602">
        <ele>817.3</ele>
        <time>2016-07-31T09:22:53Z</time>
      </trkpt>
      <trkpt lat="42.43832" lon="0.05603">
        <ele>817.6</ele>
        <time>2016-07-31T09:22:55Z</time>
      </trkpt>
      <trkpt lat="42.43837" lon="0.05603">
        <ele>817.9</ele>
        <time>2016-07-31T09:22:57Z</time>
      </trkpt>
      <trkpt lat="42.43841" lon="0.05603">
        <ele>818.2</ele>
        <time>2016-07-31T09:22:59Z</time>
      </trkpt>
      <trkpt lat="42.43846" lon="0.05603">
        <ele>818.6</ele>
        <time>2016-07-31T09:23:01Z</time>
      </trkpt>
      <trkpt lat="42.43851" lon="0.05603">
        <ele>818.9</ele>
        <time>2016-07-31T09:23:03Z</time>
      </trkpt>
      <trkpt lat="42.43855" lon="0.05603">
        <ele>819.3</ele>
        <time>2016-07-31T09:23:05Z</time>
      </trkpt>
      <trkpt lat="42.4386" lon="0.05603">
        <ele>819.7</ele>
        <time>2016-07-31T09:23:07Z</time>
      </trkpt>
      <trkpt lat="42.43864" lon="0.05603">
        <ele>820.1</ele>
        <time>2016-07-31T09:23:09Z</time>
      </trkpt>
      <trkpt lat="42.43869" lon="0.05603">
        <ele>820.5</ele>
        <time>2016-07-31T09:23:11Z</time>
      </trkpt>
      <trkpt lat="42.43873" lon="0.05603">
        <ele>820.9</ele>
        <time>2016-07-31T09:23:13Z</time>
      </trkpt>
      <trkpt lat="42.43877" lon="0.05602">
        <ele>821.4</ele>
        <time>2016-07-31T09:23:15Z</time>
      </trkpt>
      <trkpt lat="42.4388" lon="0.05601">
        <ele>822.2</ele>
        <time>2016-07-31T09:23:17Z</time>
      </trkpt>
      <trkpt lat="42.43882" lon="0.05598">
        <ele>823.2</ele>
        <time>2016-07-31T09:23:19Z</time>
      </trkpt>
      <trkpt lat="42.43882" lon="0.05595">
        <ele>824.3</ele>
        <time>2016-07-31T09:23:21Z</time>
      </trkpt>
      <trkpt lat="42.43881" lon="0.05591">
        <ele>825.1</ele>
        <time>2016-07-31T09:23:23Z</time>
      </trkpt>
      <trkpt lat="42.43878" lon="0.05588">
        <ele>825.6</ele>
        <time>2016-07-31T09:23:25Z</time>
      </trkpt>
      <trkpt lat="42.43875" lon="0.05587">
        <ele>825.6</ele>
        <time>2016-07-31T09:23:27Z</time>
      </trkpt>
      <trkpt lat="42.43871" lon="0.05586">
        <ele>825.4</ele>
        <time>2016-07-31T09:23:29Z</time>
      </trkpt>
      <trkpt lat="42.43867" lon="0.05585">
        <ele>825.4</ele>
        <time>2016-07-31T09:23:31Z</time>
      </trkpt>
      <trkpt lat="42.43864" lon="0.05583">
        <ele>825.4</ele>
        <time>2016-07-31T09:23:33Z</time>
      </trkpt>
      <trkpt lat="42.4386" lon="0.05582">
        <ele>825.5</ele>
        <time>2016-07-31T09:23:35Z</time>
      </trkpt>
      <trkpt lat="42.43856" lon="0.0558">
        <ele>825.7</ele>
        <time>2016-07-31T09:23:37Z</time>
      </trkpt>
      <trkpt lat="42.43853" lon="0.05578">
        <ele>825.9</ele>
        <time>2016-07-31T09:23:39Z</time>
      </trkpt>
      <trkpt lat="42.4385" lon="0.05576">
        <ele>826.1</ele>
        <time>2016-07-31T09:23:41Z</time>
      </trkpt>
      <trkpt lat="42.43847" lon="0.05574">
        <ele>826.3</ele>
        <time>2016-07-31T09:23:43Z</time>
      </trkpt>
      <trkpt lat="42.43844" lon="0.05572">
        <ele>826.5</ele>
        <time>2016-07-31T09:23:45Z</time>
      </trkpt>
      <trkpt lat="42.43841" lon="0.0557">
        <ele>826.7</ele>
        <time>2016-07-31T09:23:47Z</time>
      </trkpt>
      <trkpt lat="42.43838" lon="0.05568">
        <ele>827</ele>
        <time>2016-07-31T09:23:49Z</time>
      </trkpt>
      <trkpt lat="42.43835" lon="0.05565">
        <ele>827.2</ele>
        <time>2016-07-31T09:23:51Z</time>
      </trkpt>
      <trkpt lat="42.43832" lon="0.05563">
        <ele>827.4</ele>
        <time>2016-07-31T09:23:53Z</time>
      </trkpt>
      <trkpt lat="42.43829" lon="0.05561">
        <ele>827.6</ele>
        <time>2016-07-31T09:23:55Z</time>
      </trkpt>
      <trkpt lat="42.43826" lon="0.05559">
        <ele>827.8</ele>
        <time>2016-07-31T09:23:57Z</time>
      </trkpt>
      <trkpt lat="42.43823" lon="0.05557">
        <ele>828.1</ele>
        <time>2016-07-31T09:23:59Z</time>
      </trkpt>
      <trkpt lat="42.4382" lon="0.05554">
        <ele>828.4</ele>
        <time>2016-07-31T09:24:01Z</time>
      </trkpt>
      <trkpt lat="42.43817" lon="0.05552">
        <ele>828.6</ele>
        <time>2016-07-31T09:24:03Z</time>
      </trkpt>
      <trkpt lat="42.43815" lon="0.05549">
        <ele>829</ele>
        <time>2016-07-31T09:24:05Z</time>
      </trkpt>
      <trkpt lat="42.43813" lon="0.05546">
        <ele>829.5</ele>
        <time>2016-07-31T09:24:07Z</time>
      </trkpt>
      <trkpt lat="42.4381" lon="0.05543">
        <ele>829.9</ele>
        <time>2016-07-31T09:24:09Z</time>
      </trkpt>
      <trkpt lat="42.43808" lon="0.0554">
        <ele>830.4</ele>
        <time>2016-07-31T09:24:11Z</time>
      </trkpt>
      <trkpt lat="42.43805" lon="0.05536">
        <ele>831.3</ele>
        <time>2016-07-31T09:24:13Z</time>
      </trkpt>
      <trkpt lat="42.43803" lon="0.05533">
        <ele>831.9</ele>
        <time>2016-07-31T09:24:15Z</time>
      </trkpt>
      <trkpt lat="42.43801" lon="0.0553">
        <ele>832.7</ele>
        <time>2016-07-31T09:24:17Z</time>
      </trkpt>
      <trkpt lat="42.43799" lon="0.05526">
        <ele>833.5</ele>
        <time>2016-07-31T09:24:19Z</time>
      </trkpt>
      <trkpt lat="42.43797" lon="0.05523">
        <ele>834.3</ele>
        <time>2016-07-31T09:24:21Z</time>
      </trkpt>
      <trkpt lat="42.43794" lon="0.0552">
        <ele>834.8</ele>
        <time>2016-07-31T09:24:23Z</time>
      </trkpt>
      <trkpt lat="42.43791" lon="0.05517">
        <ele>835.3</ele>
        <time>2016-07-31T09:24:25Z</time>
      </trkpt>
      <trkpt lat="42.43789" lon="0.05515">
        <ele>836.1</ele>
        <time>2016-07-31T09:24:27Z</time>
      </trkpt>
      <trkpt lat="42.43786" lon="0.05512">
        <ele>836.9</ele>
        <time>2016-07-31T09:24:29Z</time>
      </trkpt>
      <trkpt lat="42.43783" lon="0.05509">
        <ele>837.7</ele>
        <time>2016-07-31T09:24:31Z</time>
      </trkpt>
      <trkpt lat="42.43779" lon="0.05506">
        <ele>838.5</ele>
        <time>2016-07-31T09:24:33Z</time>
      </trkpt>
      <trkpt lat="42.43775" lon="0.05504">
        <ele>839</ele>
        <time>2016-07-31T09:24:35Z</time>
      </trkpt>
      <trkpt lat="42.43772" lon="0.05502">
        <ele>839.5</ele>
        <time>2016-07-31T09:24:37Z</time>
      </trkpt>
      <trkpt lat="42.43769" lon="0.05499">
        <ele>840.1</ele>
        <time>2016-07-31T09:24:39Z</time>
      </trkpt>
      <trkpt lat="42.43766" lon="0.05497">
        <ele>840.7</ele>
        <time>2016-07-31T09:24:41Z</time>
      </trkpt>
      <trkpt lat="42.43763" lon="0.05495">
        <ele>841.5</ele>
        <time>2016-07-31T09:24:43Z</time>
      </trkpt>
      <trkpt lat="42.4376" lon="0.05492">
        <ele>842.1</ele>
        <time>2016-07-31T09:24:45Z</time>
      </trkpt>
      <trkpt lat="42.43756" lon="0.0549">
        <ele>842.6</ele>
        <time>2016-07-31T09:24:47Z</time>
      </trkpt>
      <trkpt lat="42.43753" lon="0.05489">
        <ele>843</ele>
        <time>2016-07-31T09:24:49Z</time>
      </trkpt>
      <trkpt lat="42.4375" lon="0.05486">
        <ele>843.7</ele>
        <time>2016-07-31T09:24:51Z</time>
      </trkpt>
      <trkpt lat="42.43747" lon="0.05484">
        <ele>844.3</ele>
        <time>2016-07-31T09:24:53Z</time>
      </trkpt>
      <trkpt lat="42.43744" lon="0.05481">
        <ele>845</ele>
        <time>2016-07-31T09:24:55Z</time>
      </trkpt>
      <trkpt lat="42.43741" lon="0.05479">
        <ele>845.6</ele>
        <time>2016-07-31T09:24:57Z</time>
      </trkpt>
      <trkpt lat="42.43739" lon="0.05476">
        <ele>846.3</ele>
        <time>2016-07-31T09:24:59Z</time>
      </trkpt>
      <trkpt lat="42.43735" lon="0.05474">
        <ele>846.9</ele>
        <time>2016-07-31T09:25:01Z</time>
      </trkpt>
      <trkpt lat="42.43732" lon="0.05472">
        <ele>847.4</ele>
        <time>2016-07-31T09:25:03Z</time>
      </trkpt>
      <trkpt lat="42.43729" lon="0.05471">
        <ele>847.8</ele>
        <time>2016-07-31T09:25:05Z</time>
      </trkpt>
      <trkpt lat="42.43726" lon="0.05469">
        <ele>848.3</ele>
        <time>2016-07-31T09:25:07Z</time>
      </trkpt>
      <trkpt lat="42.43723" lon="0.05467">
        <ele>848.7</ele>
        <time>2016-07-31T09:25:09Z</time>
      </trkpt>
      <trkpt lat="42.4372" lon="0.05466">
        <ele>849</ele>
        <time>2016-07-31T09:25:11Z</time>
      </trkpt>
      <trkpt lat="42.43717" lon="0.05465">
        <ele>849.3</ele>
        <time>2016-07-31T09:25:13Z</time>
      </trkpt>
      <trkpt lat="42.43714" lon="0.05463">
        <ele>849.6</ele>
        <time>2016-07-31T09:25:15Z</time>
      </trkpt>
      <trkpt lat="42.4371" lon="0.05462">
        <ele>849.8</ele>
        <time>2016-07-31T09:25:17Z</time>
      </trkpt>
      <trkpt lat="42.43707" lon="0.05463">
        <ele>849.7</ele>
        <time>2016-07-31T09:25:19Z</time>
      </trkpt>
      <trkpt lat="42.43704" lon="0.05463">
        <ele>849.6</ele>
        <time>2016-07-31T09:25:21Z</time>
      </trkpt>
      <trkpt lat="42.43701" lon="0.05464">
        <ele>849.5</ele>
        <time>2016-07-31T09:25:23Z</time>
      </trkpt>
      <trkpt lat="42.43698" lon="0.05464">
        <ele>849.4</ele>
        <time>2016-07-31T09:25:25Z</time>
      </trkpt>
      <trkpt lat="42.43694" lon="0.05464">
        <ele>849.6</ele>
        <time>2016-07-31T09:25:27Z</time>
      </trkpt>
      <trkpt lat="42.43692" lon="0.05463">
        <ele>849.8</ele>
        <time>2016-07-31T09:25:29Z</time>
      </trkpt>
      <trkpt lat="42.43688" lon="0.05463">
        <ele>850</ele>
        <time>2016-07-31T09:25:31Z</time>
      </trkpt>
      <trkpt lat="42.43685" lon="0.05462">
        <ele>850.1</ele>
        <time>2016-07-31T09:25:33Z</time>
      </trkpt>
      <trkpt lat="42.43681" lon="0.05462">
        <ele>850.2</ele>
        <time>2016-07-31T09:25:35Z</time>
      </trkpt>
      <trkpt lat="42.43677" lon="0.05462">
        <ele>850.3</ele>
        <time>2016-07-31T09:25:37Z</time>
      </trkpt>
      <trkpt lat="42.43674" lon="0.05461">
        <ele>850.4</ele>
        <time>2016-07-31T09:25:39Z</time>
      </trkpt>
      <trkpt lat="42.4367" lon="0.05461">
        <ele>850.6</ele>
        <time>2016-07-31T09:25:41Z</time>
      </trkpt>
      <trkpt lat="42.43667" lon="0.0546">
        <ele>850.9</ele>
        <time>2016-07-31T09:25:43Z</time>
      </trkpt>
      <trkpt lat="42.43664" lon="0.05458">
        <ele>851.6</ele>
        <time>2016-07-31T09:25:45Z</time>
      </trkpt>
      <trkpt lat="42.43662" lon="0.05456">
        <ele>852.6</ele>
        <time>2016-07-31T09:25:47Z</time>
      </trkpt>
      <trkpt lat="42.43659" lon="0.05453">
        <ele>853.7</ele>
        <time>2016-07-31T09:25:49Z</time>
      </trkpt>
      <trkpt lat="42.43657" lon="0.0545">
        <ele>854.9</ele>
        <time>2016-07-31T09:25:51Z</time>
      </trkpt>
      <trkpt lat="42.43654" lon="0.05447">
        <ele>855.9</ele>
        <time>2016-07-31T09:25:53Z</time>
      </trkpt>
      <trkpt lat="42.43651" lon="0.05445">
        <ele>856.9</ele>
        <time>2016-07-31T09:25:55Z</time>
      </trkpt>
      <trkpt lat="42.43648" lon="0.05442">
        <ele>857.9</ele>
        <time>2016-07-31T09:25:57Z</time>
      </trkpt>
      <trkpt lat="42.43645" lon="0.0544">
        <ele>858.8</ele>
        <time>2016-07-31T09:25:59Z</time>
      </trkpt>
      <trkpt lat="42.43642" lon="0.05439">
        <ele>859.4</ele>
        <time>2016-07-31T09:26:01Z</time>
      </trkpt>
      <trkpt lat="42.43639" lon="0.05438">
        <ele>859.8</ele>
        <time>2016-07-31T09:26:03Z</time>
      </trkpt>
      <trkpt lat="42.43635" lon="0.05437">
        <ele>860.3</ele>
        <time>2016-07-31T09:26:05Z</time>
      </trkpt>
      <trkpt lat="42.43632" lon="0.05435">
        <ele>860.8</ele>
        <time>2016-07-31T09:26:07Z</time>
      </trkpt>
      <trkpt lat="42.43628" lon="0.05435">
        <ele>860.8</ele>
        <time>2016-07-31T09:26:09Z</time>
      </trkpt>
      <trkpt lat="42.43625" lon="0.05436">
        <ele>860.4</ele>
        <time>2016-07-31T09:26:11Z</time>
      </trkpt>
      <trkpt lat="42.43621" lon="0.05437">
        <ele>860</ele>
        <time>2016-07-31T09:26:13Z</time>
      </trkpt>
      <trkpt lat="42.43618" lon="0.05438">
        <ele>859.6</ele>
        <time>2016-07-31T09:26:15Z</time>
      </trkpt>
      <trkpt lat="42.43615" lon="0.05439">
        <ele>859.3</ele>
        <time>2016-07-31T09:26:17Z</time>
      </trkpt>
      <trkpt lat="42.43612" lon="0.05438">
        <ele>859.3</ele>
        <time>2016-07-31T09:26:19Z</time>
      </trkpt>
      <trkpt lat="42.43609" lon="0.05438">
        <ele>859.5</ele>
        <time>2016-07-31T09:26:21Z</time>
      </trkpt>
      <trkpt lat="42.43605" lon="0.05437">
        <ele>859.9</ele>
        <time>2016-07-31T09:26:23Z</time>
      </trkpt>
      <trkpt lat="42.43602" lon="0.05435">
        <ele>860.2</ele>
        <time>2016-07-31T09:26:25Z</time>
      </trkpt>
      <trkpt lat="42.43598" lon="0.05434">
        <ele>860.6</ele>
        <time>2016-07-31T09:26:27Z</time>
      </trkpt>
      <trkpt lat="42.43594" lon="0.05433">
        <ele>861</ele>
        <time>2016-07-31T09:26:29Z</time>
      </trkpt>
      <trkpt lat="42.43591" lon="0.05431">
        <ele>861.4</ele>
        <time>2016-07-31T09:26:31Z</time>
      </trkpt>
      <trkpt lat="42.43587" lon="0.0543">
        <ele>861.7</ele>
        <time>2016-07-31T09:26:33Z</time>
      </trkpt>
      <trkpt lat="42.43584" lon="0.0543">
        <ele>861.7</ele>
        <time>2016-07-31T09:26:35Z</time>
      </trkpt>
      <trkpt lat="42.4358" lon="0.05429">
        <ele>861.9</ele>
        <time>2016-07-31T09:26:37Z</time>
      </trkpt>
      <trkpt lat="42.43577" lon="0.05428">
        <ele>862.1</ele>
        <time>2016-07-31T09:26:39Z</time>
      </trkpt>
      <trkpt lat="42.43574" lon="0.05427">
        <ele>862.4</ele>
        <time>2016-07-31T09:26:41Z</time>
      </trkpt>
      <trkpt lat="42.4357" lon="0.05426">
        <ele>862.7</ele>
        <time>2016-07-31T09:26:43Z</time>
      </trkpt>
      <trkpt lat="42.43567" lon="0.05425">
        <ele>863.1</ele>
        <time>2016-07-31T09:26:45Z</time>
      </trkpt>
      <trkpt lat="42.43564" lon="0.05423">
        <ele>863.7</ele>
        <time>2016-07-31T09:26:47Z</time>
      </trkpt>
      <trkpt lat="42.43561" lon="0.05421">
        <ele>864.1</ele>
        <time>2016-07-31T09:26:49Z</time>
      </trkpt>
      <trkpt lat="42.43557" lon="0.0542">
        <ele>864.5</ele>
        <time>2016-07-31T09:26:51Z</time>
      </trkpt>
      <trkpt lat="42.43554" lon="0.05417">
        <ele>865.2</ele>
        <time>2016-07-31T09:26:53Z</time>
      </trkpt>
      <trkpt lat="42.43551" lon="0.05415">
        <ele>865.9</ele>
        <time>2016-07-31T09:26:55Z</time>
      </trkpt>
      <trkpt lat="42.43547" lon="0.05413">
        <ele>866.4</ele>
        <time>2016-07-31T09:26:57Z</time>
      </trkpt>
      <trkpt lat="42.43544" lon="0.05411">
        <ele>866.9</ele>
        <time>2016-07-31T09:26:59Z</time>
      </trkpt>
      <trkpt lat="42.43541" lon="0.0541">
        <ele>867</ele>
        <time>2016-07-31T09:27:01Z</time>
      </trkpt>
      <trkpt lat="42.43538" lon="0.0541">
        <ele>866.8</ele>
        <time>2016-07-31T09:27:03Z</time>
      </trkpt>
      <trkpt lat="42.43535" lon="0.0541">
        <ele>866.3</ele>
        <time>2016-07-31T09:27:05Z</time>
      </trkpt>
      <trkpt lat="42.43531" lon="0.0541">
        <ele>865.9</ele>
        <time>2016-07-31T09:27:07Z</time>
      </trkpt>
      <trkpt lat="42.43527" lon="0.05409">
        <ele>865.4</ele>
        <time>2016-07-31T09:27:09Z</time>
      </trkpt>
      <trkpt lat="42.43523" lon="0.05409">
        <ele>865</ele>
        <time>2016-07-31T09:27:11Z</time>
      </trkpt>
      <trkpt lat="42.4352" lon="0.05407">
        <ele>864.8</ele>
        <time>2016-07-31T09:27:13Z</time>
      </trkpt>
      <trkpt lat="42.43516" lon="0.05407">
        <ele>864.4</ele>
        <time>2016-07-31T09:27:15Z</time>
      </trkpt>
      <trkpt lat="42.43513" lon="0.05407">
        <ele>863.9</ele>
        <time>2016-07-31T09:27:17Z</time>
      </trkpt>
      <trkpt lat="42.43509" lon="0.05406">
        <ele>863.6</ele>
        <time>2016-07-31T09:27:19Z</time>
      </trkpt>
      <trkpt lat="42.43505" lon="0.05406">
        <ele>863.3</ele>
        <time>2016-07-31T09:27:21Z</time>
      </trkpt>
      <trkpt lat="42.43501" lon="0.05405">
        <ele>862.7</ele>
        <time>2016-07-31T09:27:23Z</time>
      </trkpt>
      <trkpt lat="42.43498" lon="0.05405">
        <ele>862.2</ele>
        <time>2016-07-31T09:27:25Z</time>
      </trkpt>
      <trkpt lat="42.43494" lon="0.05405">
        <ele>861.8</ele>
        <time>2016-07-31T09:27:27Z</time>
      </trkpt>
      <trkpt lat="42.43491" lon="0.05405">
        <ele>861.3</ele>
        <time>2016-07-31T09:27:29Z</time>
      </trkpt>
      <trkpt lat="42.43488" lon="0.05406">
        <ele>860.7</ele>
        <time>2016-07-31T09:27:31Z</time>
      </trkpt>
      <trkpt lat="42.43485" lon="0.05406">
        <ele>860.1</ele>
        <time>2016-07-31T09:27:33Z</time>
      </trkpt>
      <trkpt lat="42.43482" lon="0.05405">
        <ele>859.9</ele>
        <time>2016-07-31T09:27:35Z</time>
      </trkpt>
      <trkpt lat="42.43479" lon="0.05404">
        <ele>859.8</ele>
        <time>2016-07-31T09:27:37Z</time>
      </trkpt>
      <trkpt lat="42.43476" lon="0.05403">
        <ele>859.7</ele>
        <time>2016-07-31T09:27:39Z</time>
      </trkpt>
      <trkpt lat="42.43473" lon="0.05402">
        <ele>859.5</ele>
        <time>2016-07-31T09:27:41Z</time>
      </trkpt>
      <trkpt lat="42.4347" lon="0.054">
        <ele>859.6</ele>
        <time>2016-07-31T09:27:43Z</time>
      </trkpt>
      <trkpt lat="42.43467" lon="0.05398">
        <ele>859.7</ele>
        <time>2016-07-31T09:27:45Z</time>
      </trkpt>
      <trkpt lat="42.43464" lon="0.05396">
        <ele>859.9</ele>
        <time>2016-07-31T09:27:47Z</time>
      </trkpt>
      <trkpt lat="42.43462" lon="0.05394">
        <ele>860.1</ele>
        <time>2016-07-31T09:27:49Z</time>
      </trkpt>
      <trkpt lat="42.43459" lon="0.05391">
        <ele>860.6</ele>
        <time>2016-07-31T09:27:51Z</time>
      </trkpt>
      <trkpt lat="42.43457" lon="0.05388">
        <ele>861.2</ele>
        <time>2016-07-31T09:27:53Z</time>
      </trkpt>
      <trkpt lat="42.43454" lon="0.05384">
        <ele>862</ele>
        <time>2016-07-31T09:27:55Z</time>
      </trkpt>
      <trkpt lat="42.43451" lon="0.05381">
        <ele>862.7</ele>
        <time>2016-07-31T09:27:57Z</time>
      </trkpt>
      <trkpt lat="42.43449" lon="0.05377">
        <ele>863.4</ele>
        <time>2016-07-31T09:27:59Z</time>
      </trkpt>
      <trkpt lat="42.43447" lon="0.05374">
        <ele>864.1</ele>
        <time>2016-07-31T09:28:01Z</time>
      </trkpt>
      <trkpt lat="42.43444" lon="0.05371">
        <ele>864.5</ele>
        <time>2016-07-31T09:28:03Z</time>
      </trkpt>
      <trkpt lat="42.43442" lon="0.05368">
        <ele>864.8</ele>
        <time>2016-07-31T09:28:05Z</time>
      </trkpt>
      <trkpt lat="42.4344" lon="0.05365">
        <ele>865.2</ele>
        <time>2016-07-31T09:28:07Z</time>
      </trkpt>
      <trkpt lat="42.43438" lon="0.05362">
        <ele>865.6</ele>
        <time>2016-07-31T09:28:09Z</time>
      </trkpt>
      <trkpt lat="42.43436" lon="0.0536">
        <ele>866</ele>
        <time>2016-07-31T09:28:11Z</time>
      </trkpt>
      <trkpt lat="42.43434" lon="0.05357">
        <ele>866.4</ele>
        <time>2016-07-31T09:28:13Z</time>
      </trkpt>
      <trkpt lat="42.43432" lon="0.05354">
        <ele>866.9</ele>
        <time>2016-07-31T09:28:15Z</time>
      </trkpt>
      <trkpt lat="42.43431" lon="0.0535">
        <ele>867.5</ele>
        <time>2016-07-31T09:28:17Z</time>
      </trkpt>
      <trkpt lat="42.4343" lon="0.05347">
        <ele>868.2</ele>
        <time>2016-07-31T09:28:19Z</time>
      </trkpt>
      <trkpt lat="42.43428" lon="0.05343">
        <ele>868.8</ele>
        <time>2016-07-31T09:28:21Z</time>
      </trkpt>
      <trkpt lat="42.43428" lon="0.0534">
        <ele>869.5</ele>
        <time>2016-07-31T09:28:23Z</time>
      </trkpt>
      <trkpt lat="42.43427" lon="0.05335">
        <ele>870.3</ele>
        <time>2016-07-31T09:28:25Z</time>
      </trkpt>
      <trkpt lat="42.43427" lon="0.05331">
        <ele>871.2</ele>
        <time>2016-07-31T09:28:27Z</time>
      </trkpt>
      <trkpt lat="42.43427" lon="0.05327">
        <ele>872.2</ele>
        <time>2016-07-31T09:28:29Z</time>
      </trkpt>
      <trkpt lat="42.43427" lon="0.05323">
        <ele>872.9</ele>
        <time>2016-07-31T09:28:31Z</time>
      </trkpt>
      <trkpt lat="42.43426" lon="0.05319">
        <ele>873.7</ele>
        <time>2016-07-31T09:28:33Z</time>
      </trkpt>
      <trkpt lat="42.43426" lon="0.05315">
        <ele>874.6</ele>
        <time>2016-07-31T09:28:35Z</time>
      </trkpt>
      <trkpt lat="42.43426" lon="0.0531">
        <ele>875.5</ele>
        <time>2016-07-31T09:28:37Z</time>
      </trkpt>
      <trkpt lat="42.43425" lon="0.05306">
        <ele>876.3</ele>
        <time>2016-07-31T09:28:39Z</time>
      </trkpt>
      <trkpt lat="42.43425" lon="0.05303">
        <ele>877.1</ele>
        <time>2016-07-31T09:28:41Z</time>
      </trkpt>
      <trkpt lat="42.43425" lon="0.05299">
        <ele>877.9</ele>
        <time>2016-07-31T09:28:43Z</time>
      </trkpt>
      <trkpt lat="42.43424" lon="0.05295">
        <ele>878.7</ele>
        <time>2016-07-31T09:28:45Z</time>
      </trkpt>
      <trkpt lat="42.43423" lon="0.05291">
        <ele>879.4</ele>
        <time>2016-07-31T09:28:47Z</time>
      </trkpt>
      <trkpt lat="42.43421" lon="0.05287">
        <ele>880.5</ele>
        <time>2016-07-31T09:28:50Z</time>
      </trkpt>
      <trkpt lat="42.43419" lon="0.05283">
        <ele>881.2</ele>
        <time>2016-07-31T09:28:52Z</time>
      </trkpt>
      <trkpt lat="42.43416" lon="0.05281">
        <ele>881.8</ele>
        <time>2016-07-31T09:28:54Z</time>
      </trkpt>
      <trkpt lat="42.43413" lon="0.05278">
        <ele>882.4</ele>
        <time>2016-07-31T09:28:56Z</time>
      </trkpt>
      <trkpt lat="42.43411" lon="0.05275">
        <ele>883</ele>
        <time>2016-07-31T09:28:58Z</time>
      </trkpt>
      <trkpt lat="42.43408" lon="0.05272">
        <ele>883.6</ele>
        <time>2016-07-31T09:29:00Z</time>
      </trkpt>
      <trkpt lat="42.43405" lon="0.0527">
        <ele>883.9</ele>
        <time>2016-07-31T09:29:02Z</time>
      </trkpt>
      <trkpt lat="42.43402" lon="0.05269">
        <ele>884.1</ele>
        <time>2016-07-31T09:29:04Z</time>
      </trkpt>
      <trkpt lat="42.43399" lon="0.05267">
        <ele>884.3</ele>
        <time>2016-07-31T09:29:06Z</time>
      </trkpt>
      <trkpt lat="42.43396" lon="0.05266">
        <ele>884.4</ele>
        <time>2016-07-31T09:29:08Z</time>
      </trkpt>
      <trkpt lat="42.43392" lon="0.05266">
        <ele>884.4</ele>
        <time>2016-07-31T09:29:10Z</time>
      </trkpt>
      <trkpt lat="42.43389" lon="0.05266">
        <ele>884.2</ele>
        <time>2016-07-31T09:29:12Z</time>
      </trkpt>
      <trkpt lat="42.43385" lon="0.05266">
        <ele>883.9</ele>
        <time>2016-07-31T09:29:14Z</time>
      </trkpt>
      <trkpt lat="42.43382" lon="0.05267">
        <ele>883.6</ele>
        <time>2016-07-31T09:29:16Z</time>
      </trkpt>
      <trkpt lat="42.43379" lon="0.05267">
        <ele>883.3</ele>
        <time>2016-07-31T09:29:18Z</time>
      </trkpt>
      <trkpt lat="42.43375" lon="0.05268">
        <ele>883.1</ele>
        <time>2016-07-31T09:29:20Z</time>
      </trkpt>
      <trkpt lat="42.43372" lon="0.05267">
        <ele>883</ele>
        <time>2016-07-31T09:29:22Z</time>
      </trkpt>
      <trkpt lat="42.43369" lon="0.05266">
        <ele>883.2</ele>
        <time>2016-07-31T09:29:24Z</time>
      </trkpt>
      <trkpt lat="42.43365" lon="0.05264">
        <ele>883.4</ele>
        <time>2016-07-31T09:29:26Z</time>
      </trkpt>
      <trkpt lat="42.43362" lon="0.05262">
        <ele>883.7</ele>
        <time>2016-07-31T09:29:28Z</time>
      </trkpt>
      <trkpt lat="42.43359" lon="0.05259">
        <ele>884.3</ele>
        <time>2016-07-31T09:29:30Z</time>
      </trkpt>
      <trkpt lat="42.43356" lon="0.05256">
        <ele>884.9</ele>
        <time>2016-07-31T09:29:32Z</time>
      </trkpt>
      <trkpt lat="42.43353" lon="0.05253">
        <ele>885.5</ele>
        <time>2016-07-31T09:29:34Z</time>
      </trkpt>
      <trkpt lat="42.43351" lon="0.0525">
        <ele>886</ele>
        <time>2016-07-31T09:29:36Z</time>
      </trkpt>
      <trkpt lat="42.43348" lon="0.05247">
        <ele>886.5</ele>
        <time>2016-07-31T09:29:38Z</time>
      </trkpt>
      <trkpt lat="42.43345" lon="0.05245">
        <ele>887</ele>
        <time>2016-07-31T09:29:40Z</time>
      </trkpt>
      <trkpt lat="42.43342" lon="0.05242">
        <ele>887.4</ele>
        <time>2016-07-31T09:29:42Z</time>
      </trkpt>
      <trkpt lat="42.43339" lon="0.0524">
        <ele>887.8</ele>
        <time>2016-07-31T09:29:44Z</time>
      </trkpt>
      <trkpt lat="42.43336" lon="0.05238">
        <ele>888</ele>
        <time>2016-07-31T09:29:46Z</time>
      </trkpt>
      <trkpt lat="42.43333" lon="0.05236">
        <ele>888.3</ele>
        <time>2016-07-31T09:29:48Z</time>
      </trkpt>
      <trkpt lat="42.43331" lon="0.05234">
        <ele>888.6</ele>
        <time>2016-07-31T09:29:50Z</time>
      </trkpt>
      <trkpt lat="42.43328" lon="0.05232">
        <ele>889.1</ele>
        <time>2016-07-31T09:29:52Z</time>
      </trkpt>
      <trkpt lat="42.43326" lon="0.05229">
        <ele>889.6</ele>
        <time>2016-07-31T09:29:54Z</time>
      </trkpt>
      <trkpt lat="42.43323" lon="0.05225">
        <ele>890.2</ele>
        <time>2016-07-31T09:29:56Z</time>
      </trkpt>
      <trkpt lat="42.4332" lon="0.05222">
        <ele>890.8</ele>
        <time>2016-07-31T09:29:58Z</time>
      </trkpt>
      <trkpt lat="42.43317" lon="0.05219">
        <ele>891.4</ele>
        <time>2016-07-31T09:30:00Z</time>
      </trkpt>
      <trkpt lat="42.43314" lon="0.05216">
        <ele>891.9</ele>
        <time>2016-07-31T09:30:02Z</time>
      </trkpt>
      <trkpt lat="42.43311" lon="0.05212">
        <ele>892.5</ele>
        <time>2016-07-31T09:30:04Z</time>
      </trkpt>
      <trkpt lat="42.43308" lon="0.0521">
        <ele>892.7</ele>
        <time>2016-07-31T09:30:06Z</time>
      </trkpt>
      <trkpt lat="42.43304" lon="0.0521">
        <ele>892.5</ele>
        <time>2016-07-31T09:30:08Z</time>
      </trkpt>
      <trkpt lat="42.43301" lon="0.05209">
        <ele>892.4</ele>
        <time>2016-07-31T09:30:10Z</time>
      </trkpt>
      <trkpt lat="42.43298" lon="0.05209">
        <ele>892.2</ele>
        <time>2016-07-31T09:30:12Z</time>
      </trkpt>
      <trkpt lat="42.43294" lon="0.0521">
        <ele>891.8</ele>
        <time>2016-07-31T09:30:14Z</time>
      </trkpt>
      <trkpt lat="42.43291" lon="0.05211">
        <ele>891.1</ele>
        <time>2016-07-31T09:30:16Z</time>
      </trkpt>
      <trkpt lat="42.43287" lon="0.05211">
        <ele>889.8</ele>
        <time>2016-07-31T09:30:18Z</time>
      </trkpt>
      <trkpt lat="42.43284" lon="0.05211">
        <ele>888.8</ele>
        <time>2016-07-31T09:30:20Z</time>
      </trkpt>
      <trkpt lat="42.43281" lon="0.05211">
        <ele>887.7</ele>
        <time>2016-07-31T09:30:22Z</time>
      </trkpt>
      <trkpt lat="42.43277" lon="0.05211">
        <ele>886.5</ele>
        <time>2016-07-31T09:30:24Z</time>
      </trkpt>
      <trkpt lat="42.43274" lon="0.05211">
        <ele>885.6</ele>
        <time>2016-07-31T09:30:26Z</time>
      </trkpt>
      <trkpt lat="42.43271" lon="0.05211">
        <ele>884.5</ele>
        <time>2016-07-31T09:30:28Z</time>
      </trkpt>
      <trkpt lat="42.43267" lon="0.0521">
        <ele>883.4</ele>
        <time>2016-07-31T09:30:30Z</time>
      </trkpt>
      <trkpt lat="42.43264" lon="0.05209">
        <ele>882.4</ele>
        <time>2016-07-31T09:30:32Z</time>
      </trkpt>
      <trkpt lat="42.4326" lon="0.05209">
        <ele>881.3</ele>
        <time>2016-07-31T09:30:34Z</time>
      </trkpt>
      <trkpt lat="42.43257" lon="0.05209">
        <ele>880.2</ele>
        <time>2016-07-31T09:30:36Z</time>
      </trkpt>
      <trkpt lat="42.43253" lon="0.05208">
        <ele>879.4</ele>
        <time>2016-07-31T09:30:38Z</time>
      </trkpt>
      <trkpt lat="42.4325" lon="0.05206">
        <ele>878.5</ele>
        <time>2016-07-31T09:30:40Z</time>
      </trkpt>
      <trkpt lat="42.43247" lon="0.05206">
        <ele>877.6</ele>
        <time>2016-07-31T09:30:42Z</time>
      </trkpt>
      <trkpt lat="42.43243" lon="0.05205">
        <ele>876.6</ele>
        <time>2016-07-31T09:30:44Z</time>
      </trkpt>
      <trkpt lat="42.4324" lon="0.05204">
        <ele>875.8</ele>
        <time>2016-07-31T09:30:46Z</time>
      </trkpt>
      <trkpt lat="42.43237" lon="0.05203">
        <ele>875.1</ele>
        <time>2016-07-31T09:30:48Z</time>
      </trkpt>
      <trkpt lat="42.43234" lon="0.05201">
        <ele>875.1</ele>
        <time>2016-07-31T09:30:50Z</time>
      </trkpt>
      <trkpt lat="42.43233" lon="0.05197">
        <ele>875.9</ele>
        <time>2016-07-31T09:30:52Z</time>
      </trkpt>
      <trkpt lat="42.43235" lon="0.05192">
        <ele>877.6</ele>
        <time>2016-07-31T09:30:54Z</time>
      </trkpt>
      <trkpt lat="42.43238" lon="0.05189">
        <ele>879.4</ele>
        <time>2016-07-31T09:30:56Z</time>
      </trkpt>
      <trkpt lat="42.43241" lon="0.05188">
        <ele>880.8</ele>
        <time>2016-07-31T09:30:58Z</time>
      </trkpt>
      <trkpt lat="42.43245" lon="0.05188">
        <ele>881.7</ele>
        <time>2016-07-31T09:31:00Z</time>
      </trkpt>
      <trkpt lat="42.43248" lon="0.0519">
        <ele>882.4</ele>
        <time>2016-07-31T09:31:02Z</time>
      </trkpt>
      <trkpt lat="42.43252" lon="0.05191">
        <ele>883.2</ele>
        <time>2016-07-31T09:31:04Z</time>
      </trkpt>
      <trkpt lat="42.43256" lon="0.05192">
        <ele>884.1</ele>
        <time>2016-07-31T09:31:06Z</time>
      </trkpt>
      <trkpt lat="42.4326" lon="0.05193">
        <ele>885.1</ele>
        <time>2016-07-31T09:31:08Z</time>
      </trkpt>
      <trkpt lat="42.43263" lon="0.05192">
        <ele>886.2</ele>
        <time>2016-07-31T09:31:10Z</time>
      </trkpt>
      <trkpt lat="42.43266" lon="0.05191">
        <ele>887.3</ele>
        <time>2016-07-31T09:31:12Z</time>
      </trkpt>
      <trkpt lat="42.43269" lon="0.0519">
        <ele>888.5</ele>
        <time>2016-07-31T09:31:14Z</time>
      </trkpt>
      <trkpt lat="42.43272" lon="0.05188">
        <ele>889.8</ele>
        <time>2016-07-31T09:31:16Z</time>
      </trkpt>
      <trkpt lat="42.43275" lon="0.05186">
        <ele>891.1</ele>
        <time>2016-07-31T09:31:18Z</time>
      </trkpt>
      <trkpt lat="42.43278" lon="0.05183">
        <ele>892.5</ele>
        <time>2016-07-31T09:31:20Z</time>
      </trkpt>
      <trkpt lat="42.43281" lon="0.0518">
        <ele>893.9</ele>
        <time>2016-07-31T09:31:22Z</time>
      </trkpt>
      <trkpt lat="42.43283" lon="0.05178">
        <ele>895.3</ele>
        <time>2016-07-31T09:31:24Z</time>
      </trkpt>
      <trkpt lat="42.43286" lon="0.05175">
        <ele>896.6</ele>
        <time>2016-07-31T09:31:26Z</time>
      </trkpt>
      <trkpt lat="42.4329" lon="0.05173">
        <ele>897.8</ele>
        <time>2016-07-31T09:31:28Z</time>
      </trkpt>
      <trkpt lat="42.43293" lon="0.05171">
        <ele>898.8</ele>
        <time>2016-07-31T09:31:30Z</time>
      </trkpt>
      <trkpt lat="42.43295" lon="0.05167">
        <ele>899.7</ele>
        <time>2016-07-31T09:31:32Z</time>
      </trkpt>
      <trkpt lat="42.43296" lon="0.05163">
        <ele>900.6</ele>
        <time>2016-07-31T09:31:34Z</time>
      </trkpt>
      <trkpt lat="42.43298" lon="0.05159">
        <ele>901.5</ele>
        <time>2016-07-31T09:31:36Z</time>
      </trkpt>
      <trkpt lat="42.43299" lon="0.05154">
        <ele>902.3</ele>
        <time>2016-07-31T09:31:38Z</time>
      </trkpt>
      <trkpt lat="42.43301" lon="0.0515">
        <ele>903.2</ele>
        <time>2016-07-31T09:31:40Z</time>
      </trkpt>
      <trkpt lat="42.43303" lon="0.05147">
        <ele>904</ele>
        <time>2016-07-31T09:31:42Z</time>
      </trkpt>
      <trkpt lat="42.43306" lon="0.05144">
        <ele>904.7</ele>
        <time>2016-07-31T09:31:44Z</time>
      </trkpt>
      <trkpt lat="42.43309" lon="0.05142">
        <ele>905.4</ele>
        <time>2016-07-31T09:31:46Z</time>
      </trkpt>
      <trkpt lat="42.43312" lon="0.05139">
        <ele>906.1</ele>
        <time>2016-07-31T09:31:48Z</time>
      </trkpt>
      <trkpt lat="42.43315" lon="0.05137">
        <ele>906.8</ele>
        <time>2016-07-31T09:31:50Z</time>
      </trkpt>
      <trkpt lat="42.43319" lon="0.05136">
        <ele>907.3</ele>
        <time>2016-07-31T09:31:52Z</time>
      </trkpt>
      <trkpt lat="42.43323" lon="0.05136">
        <ele>907.6</ele>
        <time>2016-07-31T09:31:54Z</time>
      </trkpt>
      <trkpt lat="42.43328" lon="0.05137">
        <ele>907.8</ele>
        <time>2016-07-31T09:31:56Z</time>
      </trkpt>
      <trkpt lat="42.43332" lon="0.05139">
        <ele>907.8</ele>
        <time>2016-07-31T09:31:58Z</time>
      </trkpt>
      <trkpt lat="42.43335" lon="0.05143">
        <ele>907.4</ele>
        <time>2016-07-31T09:32:00Z</time>
      </trkpt>
      <trkpt lat="42.43339" lon="0.05146">
        <ele>907</ele>
        <time>2016-07-31T09:32:02Z</time>
      </trkpt>
      <trkpt lat="42.43342" lon="0.05148">
        <ele>906.9</ele>
        <time>2016-07-31T09:32:03Z</time>
      </trkpt>
      <trkpt lat="42.43345" lon="0.0515">
        <ele>906.9</ele>
        <time>2016-07-31T09:32:04Z</time>
      </trkpt>
      <trkpt lat="42.43348" lon="0.0515">
        <ele>907</ele>
        <time>2016-07-31T09:32:05Z</time>
      </trkpt>
      <trkpt lat="42.43351" lon="0.05151">
        <ele>907.1</ele>
        <time>2016-07-31T09:32:06Z</time>
      </trkpt>
      <trkpt lat="42.43354" lon="0.05151">
        <ele>907.3</ele>
        <time>2016-07-31T09:32:07Z</time>
      </trkpt>
      <trkpt lat="42.43357" lon="0.05151">
        <ele>907.6</ele>
        <time>2016-07-31T09:32:08Z</time>
      </trkpt>
      <trkpt lat="42.4336" lon="0.0515">
        <ele>907.9</ele>
        <time>2016-07-31T09:32:09Z</time>
      </trkpt>
      <trkpt lat="42.43362" lon="0.05149">
        <ele>908.4</ele>
        <time>2016-07-31T09:32:10Z</time>
      </trkpt>
      <trkpt lat="42.43365" lon="0.05148">
        <ele>908.9</ele>
        <time>2016-07-31T09:32:11Z</time>
      </trkpt>
      <trkpt lat="42.43367" lon="0.05146">
        <ele>909.4</ele>
        <time>2016-07-31T09:32:12Z</time>
      </trkpt>
      <trkpt lat="42.4337" lon="0.05144">
        <ele>910</ele>
        <time>2016-07-31T09:32:13Z</time>
      </trkpt>
      <trkpt lat="42.43374" lon="0.0514">
        <ele>911</ele>
        <time>2016-07-31T09:32:15Z</time>
      </trkpt>
      <trkpt lat="42.43378" lon="0.05137">
        <ele>911.9</ele>
        <time>2016-07-31T09:32:17Z</time>
      </trkpt>
      <trkpt lat="42.43382" lon="0.05136">
        <ele>912.7</ele>
        <time>2016-07-31T09:32:19Z</time>
      </trkpt>
      <trkpt lat="42.43387" lon="0.05136">
        <ele>913.2</ele>
        <time>2016-07-31T09:32:21Z</time>
      </trkpt>
      <trkpt lat="42.43393" lon="0.05137">
        <ele>913.6</ele>
        <time>2016-07-31T09:32:23Z</time>
      </trkpt>
      <trkpt lat="42.43398" lon="0.05139">
        <ele>913.8</ele>
        <time>2016-07-31T09:32:25Z</time>
      </trkpt>
      <trkpt lat="42.43403" lon="0.05141">
        <ele>913.9</ele>
        <time>2016-07-31T09:32:27Z</time>
      </trkpt>
      <trkpt lat="42.43408" lon="0.05143">
        <ele>914</ele>
        <time>2016-07-31T09:32:29Z</time>
      </trkpt>
      <trkpt lat="42.4341" lon="0.05143">
        <ele>914.2</ele>
        <time>2016-07-31T09:32:30Z</time>
      </trkpt>
      <trkpt lat="42.43416" lon="0.05145">
        <ele>914.4</ele>
        <time>2016-07-31T09:32:32Z</time>
      </trkpt>
      <trkpt lat="42.43421" lon="0.05146">
        <ele>914.6</ele>
        <time>2016-07-31T09:32:34Z</time>
      </trkpt>
      <trkpt lat="42.43426" lon="0.05148">
        <ele>914.7</ele>
        <time>2016-07-31T09:32:36Z</time>
      </trkpt>
      <trkpt lat="42.43431" lon="0.0515">
        <ele>914.7</ele>
        <time>2016-07-31T09:32:38Z</time>
      </trkpt>
      <trkpt lat="42.43435" lon="0.05153">
        <ele>914.4</ele>
        <time>2016-07-31T09:32:40Z</time>
      </trkpt>
      <trkpt lat="42.43439" lon="0.05156">
        <ele>914.1</ele>
        <time>2016-07-31T09:32:42Z</time>
      </trkpt>
      <trkpt lat="42.43443" lon="0.05159">
        <ele>913.6</ele>
        <time>2016-07-31T09:32:44Z</time>
      </trkpt>
      <trkpt lat="42.43448" lon="0.05162">
        <ele>913.2</ele>
        <time>2016-07-31T09:32:46Z</time>
      </trkpt>
      <trkpt lat="42.43452" lon="0.05165">
        <ele>912.8</ele>
        <time>2016-07-31T09:32:48Z</time>
      </trkpt>
      <trkpt lat="42.43456" lon="0.05168">
        <ele>912.4</ele>
        <time>2016-07-31T09:32:50Z</time>
      </trkpt>
      <trkpt lat="42.4346" lon="0.05171">
        <ele>912.2</ele>
        <time>2016-07-31T09:32:52Z</time>
      </trkpt>
      <trkpt lat="42.43465" lon="0.05174">
        <ele>912</ele>
        <time>2016-07-31T09:32:54Z</time>
      </trkpt>
      <trkpt lat="42.43469" lon="0.05177">
        <ele>911.9</ele>
        <time>2016-07-31T09:32:56Z</time>
      </trkpt>
      <trkpt lat="42.43473" lon="0.05179">
        <ele>912</ele>
        <time>2016-07-31T09:32:58Z</time>
      </trkpt>
      <trkpt lat="42.43478" lon="0.0518">
        <ele>912.2</ele>
        <time>2016-07-31T09:33:00Z</time>
      </trkpt>
      <trkpt lat="42.43482" lon="0.05181">
        <ele>912.5</ele>
        <time>2016-07-31T09:33:02Z</time>
      </trkpt>
      <trkpt lat="42.43486" lon="0.05182">
        <ele>912.9</ele>
        <time>2016-07-31T09:33:04Z</time>
      </trkpt>
      <trkpt lat="42.43491" lon="0.05184">
        <ele>913.2</ele>
        <time>2016-07-31T09:33:06Z</time>
      </trkpt>
      <trkpt lat="42.43495" lon="0.05186">
        <ele>913.3</ele>
        <time>2016-07-31T09:33:08Z</time>
      </trkpt>
      <trkpt lat="42.43499" lon="0.05189">
        <ele>913</ele>
        <time>2016-07-31T09:33:10Z</time>
      </trkpt>
      <trkpt lat="42.43503" lon="0.05192">
        <ele>912.7</ele>
        <time>2016-07-31T09:33:12Z</time>
      </trkpt>
      <trkpt lat="42.43507" lon="0.05196">
        <ele>912.3</ele>
        <time>2016-07-31T09:33:14Z</time>
      </trkpt>
      <trkpt lat="42.43511" lon="0.05201">
        <ele>911.5</ele>
        <time>2016-07-31T09:33:16Z</time>
      </trkpt>
      <trkpt lat="42.43514" lon="0.05206">
        <ele>910.8</ele>
        <time>2016-07-31T09:33:18Z</time>
      </trkpt>
      <trkpt lat="42.43518" lon="0.05211">
        <ele>910.1</ele>
        <time>2016-07-31T09:33:20Z</time>
      </trkpt>
      <trkpt lat="42.43521" lon="0.05215">
        <ele>909.7</ele>
        <time>2016-07-31T09:33:22Z</time>
      </trkpt>
      <trkpt lat="42.43524" lon="0.0522">
        <ele>909.3</ele>
        <time>2016-07-31T09:33:24Z</time>
      </trkpt>
      <trkpt lat="42.43527" lon="0.05225">
        <ele>908.7</ele>
        <time>2016-07-31T09:33:26Z</time>
      </trkpt>
      <trkpt lat="42.43529" lon="0.05231">
        <ele>908</ele>
        <time>2016-07-31T09:33:28Z</time>
      </trkpt>
      <trkpt lat="42.43532" lon="0.05236">
        <ele>907.6</ele>
        <time>2016-07-31T09:33:30Z</time>
      </trkpt>
      <trkpt lat="42.43535" lon="0.0524">
        <ele>907.4</ele>
        <time>2016-07-31T09:33:32Z</time>
      </trkpt>
      <trkpt lat="42.43538" lon="0.05242">
        <ele>907.7</ele>
        <time>2016-07-31T09:33:34Z</time>
      </trkpt>
      <trkpt lat="42.43542" lon="0.05243">
        <ele>908.3</ele>
        <time>2016-07-31T09:33:36Z</time>
      </trkpt>
      <trkpt lat="42.43545" lon="0.0524">
        <ele>909.2</ele>
        <time>2016-07-31T09:33:38Z</time>
      </trkpt>
      <trkpt lat="42.43546" lon="0.05236">
        <ele>910.2</ele>
        <time>2016-07-31T09:33:40Z</time>
      </trkpt>
      <trkpt lat="42.43544" lon="0.05231">
        <ele>910.8</ele>
        <time>2016-07-31T09:33:42Z</time>
      </trkpt>
      <trkpt lat="42.43542" lon="0.05227">
        <ele>911</ele>
        <time>2016-07-31T09:33:44Z</time>
      </trkpt>
      <trkpt lat="42.4354" lon="0.05222">
        <ele>911.4</ele>
        <time>2016-07-31T09:33:46Z</time>
      </trkpt>
      <trkpt lat="42.43538" lon="0.05217">
        <ele>912</ele>
        <time>2016-07-31T09:33:48Z</time>
      </trkpt>
      <trkpt lat="42.43537" lon="0.05213">
        <ele>912.5</ele>
        <time>2016-07-31T09:33:50Z</time>
      </trkpt>
      <trkpt lat="42.43535" lon="0.05208">
        <ele>913.1</ele>
        <time>2016-07-31T09:33:52Z</time>
      </trkpt>
      <trkpt lat="42.43533" lon="0.05204">
        <ele>913.9</ele>
        <time>2016-07-31T09:33:54Z</time>
      </trkpt>
      <trkpt lat="42.43531" lon="0.052">
        <ele>914.6</ele>
        <time>2016-07-31T09:33:56Z</time>
      </trkpt>
      <trkpt lat="42.43529" lon="0.05195">
        <ele>915.5</ele>
        <time>2016-07-31T09:33:58Z</time>
      </trkpt>
      <trkpt lat="42.43527" lon="0.05191">
        <ele>916.4</ele>
        <time>2016-07-31T09:34:00Z</time>
      </trkpt>
      <trkpt lat="42.43525" lon="0.05187">
        <ele>917.4</ele>
        <time>2016-07-31T09:34:02Z</time>
      </trkpt>
      <trkpt lat="42.43524" lon="0.05182">
        <ele>918.4</ele>
        <time>2016-07-31T09:34:04Z</time>
      </trkpt>
      <trkpt lat="42.43522" lon="0.05177">
        <ele>919.5</ele>
        <time>2016-07-31T09:34:06Z</time>
      </trkpt>
      <trkpt lat="42.43521" lon="0.05172">
        <ele>920.5</ele>
        <time>2016-07-31T09:34:08Z</time>
      </trkpt>
      <trkpt lat="42.4352" lon="0.05167">
        <ele>921.7</ele>
        <time>2016-07-31T09:34:10Z</time>
      </trkpt>
      <trkpt lat="42.43519" lon="0.05162">
        <ele>922.8</ele>
        <time>2016-07-31T09:34:12Z</time>
      </trkpt>
      <trkpt lat="42.43517" lon="0.05158">
        <ele>923.6</ele>
        <time>2016-07-31T09:34:14Z</time>
      </trkpt>
      <trkpt lat="42.43514" lon="0.05154">
        <ele>924.3</ele>
        <time>2016-07-31T09:34:16Z</time>
      </trkpt>
      <trkpt lat="42.43511" lon="0.0515">
        <ele>925</ele>
        <time>2016-07-31T09:34:18Z</time>
      </trkpt>
      <trkpt lat="42.43508" lon="0.05148">
        <ele>925.1</ele>
        <time>2016-07-31T09:34:20Z</time>
      </trkpt>
      <trkpt lat="42.43504" lon="0.05147">
        <ele>924.8</ele>
        <time>2016-07-31T09:34:22Z</time>
      </trkpt>
      <trkpt lat="42.43501" lon="0.05145">
        <ele>924.8</ele>
        <time>2016-07-31T09:34:24Z</time>
      </trkpt>
      <trkpt lat="42.43499" lon="0.05142">
        <ele>925.4</ele>
        <time>2016-07-31T09:34:26Z</time>
      </trkpt>
      <trkpt lat="42.43499" lon="0.05138">
        <ele>926.4</ele>
        <time>2016-07-31T09:34:28Z</time>
      </trkpt>
      <trkpt lat="42.435" lon="0.05134">
        <ele>927.6</ele>
        <time>2016-07-31T09:34:30Z</time>
      </trkpt>
      <trkpt lat="42.43503" lon="0.05133">
        <ele>928.3</ele>
        <time>2016-07-31T09:34:32Z</time>
      </trkpt>
      <trkpt lat="42.43507" lon="0.05134">
        <ele>928.7</ele>
        <time>2016-07-31T09:34:35Z</time>
      </trkpt>
      <trkpt lat="42.43511" lon="0.05137">
        <ele>928.4</ele>
        <time>2016-07-31T09:34:37Z</time>
      </trkpt>
      <trkpt lat="42.43515" lon="0.05141">
        <ele>928.1</ele>
        <time>2016-07-31T09:34:39Z</time>
      </trkpt>
      <trkpt lat="42.43519" lon="0.05144">
        <ele>927.8</ele>
        <time>2016-07-31T09:34:41Z</time>
      </trkpt>
      <trkpt lat="42.43523" lon="0.05148">
        <ele>927.4</ele>
        <time>2016-07-31T09:34:43Z</time>
      </trkpt>
      <trkpt lat="42.43527" lon="0.05152">
        <ele>926.9</ele>
        <time>2016-07-31T09:34:45Z</time>
      </trkpt>
      <trkpt lat="42.4353" lon="0.05156">
        <ele>926.2</ele>
        <time>2016-07-31T09:34:47Z</time>
      </trkpt>
      <trkpt lat="42.43533" lon="0.0516">
        <ele>925.4</ele>
        <time>2016-07-31T09:34:49Z</time>
      </trkpt>
      <trkpt lat="42.43536" lon="0.05165">
        <ele>924.7</ele>
        <time>2016-07-31T09:34:51Z</time>
      </trkpt>
      <trkpt lat="42.43539" lon="0.05168">
        <ele>924.2</ele>
        <time>2016-07-31T09:34:53Z</time>
      </trkpt>
      <trkpt lat="42.43542" lon="0.05172">
        <ele>923.8</ele>
        <time>2016-07-31T09:34:55Z</time>
      </trkpt>
      <trkpt lat="42.43546" lon="0.05175">
        <ele>923.6</ele>
        <time>2016-07-31T09:34:57Z</time>
      </trkpt>
      <trkpt lat="42.4355" lon="0.05178">
        <ele>923.7</ele>
        <time>2016-07-31T09:34:59Z</time>
      </trkpt>
      <trkpt lat="42.43554" lon="0.05181">
        <ele>923.6</ele>
        <time>2016-07-31T09:35:01Z</time>
      </trkpt>
      <trkpt lat="42.43557" lon="0.05185">
        <ele>923.3</ele>
        <time>2016-07-31T09:35:03Z</time>
      </trkpt>
      <trkpt lat="42.4356" lon="0.05189">
        <ele>923</ele>
        <time>2016-07-31T09:35:05Z</time>
      </trkpt>
      <trkpt lat="42.43564" lon="0.05193">
        <ele>922.8</ele>
        <time>2016-07-31T09:35:07Z</time>
      </trkpt>
      <trkpt lat="42.43567" lon="0.05197">
        <ele>922.4</ele>
        <time>2016-07-31T09:35:09Z</time>
      </trkpt>
      <trkpt lat="42.4357" lon="0.05201">
        <ele>922.1</ele>
        <time>2016-07-31T09:35:11Z</time>
      </trkpt>
      <trkpt lat="42.43573" lon="0.05204">
        <ele>922.3</ele>
        <time>2016-07-31T09:35:13Z</time>
      </trkpt>
      <trkpt lat="42.43577" lon="0.05203">
        <ele>923.4</ele>
        <time>2016-07-31T09:35:15Z</time>
      </trkpt>
      <trkpt lat="42.43581" lon="0.052">
        <ele>924.9</ele>
        <time>2016-07-31T09:35:17Z</time>
      </trkpt>
      <trkpt lat="42.43582" lon="0.05195">
        <ele>926.1</ele>
        <time>2016-07-31T09:35:19Z</time>
      </trkpt>
      <trkpt lat="42.4358" lon="0.05191">
        <ele>926.7</ele>
        <time>2016-07-31T09:35:21Z</time>
      </trkpt>
      <trkpt lat="42.43577" lon="0.05187">
        <ele>926.9</ele>
        <time>2016-07-31T09:35:23Z</time>
      </trkpt>
      <trkpt lat="42.43574" lon="0.05183">
        <ele>927.3</ele>
        <time>2016-07-31T09:35:25Z</time>
      </trkpt>
      <trkpt lat="42.43572" lon="0.05179">
        <ele>927.8</ele>
        <time>2016-07-31T09:35:27Z</time>
      </trkpt>
      <trkpt lat="42.4357" lon="0.05174">
        <ele>928.5</ele>
        <time>2016-07-31T09:35:29Z</time>
      </trkpt>
      <trkpt lat="42.43569" lon="0.05169">
        <ele>929.4</ele>
        <time>2016-07-31T09:35:31Z</time>
      </trkpt>
      <trkpt lat="42.43567" lon="0.05165">
        <ele>930.1</ele>
        <time>2016-07-31T09:35:33Z</time>
      </trkpt>
      <trkpt lat="42.43566" lon="0.05161">
        <ele>930.8</ele>
        <time>2016-07-31T09:35:35Z</time>
      </trkpt>
      <trkpt lat="42.43564" lon="0.05157">
        <ele>931.6</ele>
        <time>2016-07-31T09:35:37Z</time>
      </trkpt>
      <trkpt lat="42.43563" lon="0.05153">
        <ele>932.3</ele>
        <time>2016-07-31T09:35:39Z</time>
      </trkpt>
      <trkpt lat="42.4356" lon="0.05149">
        <ele>932.8</ele>
        <time>2016-07-31T09:35:41Z</time>
      </trkpt>
      <trkpt lat="42.43559" lon="0.05145">
        <ele>933.5</ele>
        <time>2016-07-31T09:35:43Z</time>
      </trkpt>
      <trkpt lat="42.43558" lon="0.05141">
        <ele>934.3</ele>
        <time>2016-07-31T09:35:45Z</time>
      </trkpt>
      <trkpt lat="42.43558" lon="0.05136">
        <ele>935.5</ele>
        <time>2016-07-31T09:35:47Z</time>
      </trkpt>
      <trkpt lat="42.4356" lon="0.05133">
        <ele>936.6</ele>
        <time>2016-07-31T09:35:49Z</time>
      </trkpt>
      <trkpt lat="42.43563" lon="0.05132">
        <ele>937.4</ele>
        <time>2016-07-31T09:35:51Z</time>
      </trkpt>
      <trkpt lat="42.43567" lon="0.05132">
        <ele>937.8</ele>
        <time>2016-07-31T09:35:54Z</time>
      </trkpt>
      <trkpt lat="42.43569" lon="0.05136">
        <ele>937.3</ele>
        <time>2016-07-31T09:35:56Z</time>
      </trkpt>
      <trkpt lat="42.43572" lon="0.05141">
        <ele>936.6</ele>
        <time>2016-07-31T09:35:58Z</time>
      </trkpt>
      <trkpt lat="42.43574" lon="0.05146">
        <ele>935.9</ele>
        <time>2016-07-31T09:36:00Z</time>
      </trkpt>
      <trkpt lat="42.43577" lon="0.0515">
        <ele>935.3</ele>
        <time>2016-07-31T09:36:02Z</time>
      </trkpt>
      <trkpt lat="42.43579" lon="0.05155">
        <ele>934.8</ele>
        <time>2016-07-31T09:36:04Z</time>
      </trkpt>
      <trkpt lat="42.43583" lon="0.05158">
        <ele>934.4</ele>
        <time>2016-07-31T09:36:06Z</time>
      </trkpt>
      <trkpt lat="42.43586" lon="0.05162">
        <ele>934.3</ele>
        <time>2016-07-31T09:36:08Z</time>
      </trkpt>
      <trkpt lat="42.43589" lon="0.05165">
        <ele>934.1</ele>
        <time>2016-07-31T09:36:10Z</time>
      </trkpt>
      <trkpt lat="42.43592" lon="0.05168">
        <ele>934.1</ele>
        <time>2016-07-31T09:36:12Z</time>
      </trkpt>
      <trkpt lat="42.43596" lon="0.0517">
        <ele>934.4</ele>
        <time>2016-07-31T09:36:14Z</time>
      </trkpt>
      <trkpt lat="42.43599" lon="0.05172">
        <ele>934.6</ele>
        <time>2016-07-31T09:36:16Z</time>
      </trkpt>
      <trkpt lat="42.43603" lon="0.05173">
        <ele>935</ele>
        <time>2016-07-31T09:36:18Z</time>
      </trkpt>
      <trkpt lat="42.43607" lon="0.05175">
        <ele>935.5</ele>
        <time>2016-07-31T09:36:20Z</time>
      </trkpt>
      <trkpt lat="42.43611" lon="0.05175">
        <ele>936.2</ele>
        <time>2016-07-31T09:36:22Z</time>
      </trkpt>
      <trkpt lat="42.43615" lon="0.05175">
        <ele>937</ele>
        <time>2016-07-31T09:36:24Z</time>
      </trkpt>
      <trkpt lat="42.43619" lon="0.05175">
        <ele>937.9</ele>
        <time>2016-07-31T09:36:26Z</time>
      </trkpt>
      <trkpt lat="42.43623" lon="0.05175">
        <ele>938.8</ele>
        <time>2016-07-31T09:36:28Z</time>
      </trkpt>
      <trkpt lat="42.43628" lon="0.05174">
        <ele>939.5</ele>
        <time>2016-07-31T09:36:30Z</time>
      </trkpt>
      <trkpt lat="42.43632" lon="0.05173">
        <ele>940.1</ele>
        <time>2016-07-31T09:36:32Z</time>
      </trkpt>
      <trkpt lat="42.43636" lon="0.05172">
        <ele>940.7</ele>
        <time>2016-07-31T09:36:34Z</time>
      </trkpt>
      <trkpt lat="42.4364" lon="0.05171">
        <ele>941.3</ele>
        <time>2016-07-31T09:36:36Z</time>
      </trkpt>
      <trkpt lat="42.43643" lon="0.05169">
        <ele>942.1</ele>
        <time>2016-07-31T09:36:38Z</time>
      </trkpt>
      <trkpt lat="42.43646" lon="0.05166">
        <ele>943.1</ele>
        <time>2016-07-31T09:36:40Z</time>
      </trkpt>
      <trkpt lat="42.43647" lon="0.05162">
        <ele>943.9</ele>
        <time>2016-07-31T09:36:42Z</time>
      </trkpt>
      <trkpt lat="42.43646" lon="0.05158">
        <ele>944.7</ele>
        <time>2016-07-31T09:36:44Z</time>
      </trkpt>
      <trkpt lat="42.43645" lon="0.05153">
        <ele>945.5</ele>
        <time>2016-07-31T09:36:46Z</time>
      </trkpt>
      <trkpt lat="42.43643" lon="0.05149">
        <ele>946</ele>
        <time>2016-07-31T09:36:48Z</time>
      </trkpt>
      <trkpt lat="42.4364" lon="0.05147">
        <ele>946.1</ele>
        <time>2016-07-31T09:36:50Z</time>
      </trkpt>
      <trkpt lat="42.43637" lon="0.05145">
        <ele>946</ele>
        <time>2016-07-31T09:36:52Z</time>
      </trkpt>
      <trkpt lat="42.43634" lon="0.05143">
        <ele>945.9</ele>
        <time>2016-07-31T09:36:54Z</time>
      </trkpt>
      <trkpt lat="42.43631" lon="0.05142">
        <ele>945.7</ele>
        <time>2016-07-31T09:36:56Z</time>
      </trkpt>
      <trkpt lat="42.43627" lon="0.05141">
        <ele>945.5</ele>
        <time>2016-07-31T09:36:58Z</time>
      </trkpt>
      <trkpt lat="42.43624" lon="0.05139">
        <ele>945.4</ele>
        <time>2016-07-31T09:37:00Z</time>
      </trkpt>
      <trkpt lat="42.43622" lon="0.05136">
        <ele>945.5</ele>
        <time>2016-07-31T09:37:02Z</time>
      </trkpt>
      <trkpt lat="42.43619" lon="0.05133">
        <ele>945.6</ele>
        <time>2016-07-31T09:37:04Z</time>
      </trkpt>
      <trkpt lat="42.43617" lon="0.0513">
        <ele>945.8</ele>
        <time>2016-07-31T09:37:06Z</time>
      </trkpt>
      <trkpt lat="42.43615" lon="0.05127">
        <ele>946.1</ele>
        <time>2016-07-31T09:37:08Z</time>
      </trkpt>
      <trkpt lat="42.43613" lon="0.05124">
        <ele>946.5</ele>
        <time>2016-07-31T09:37:10Z</time>
      </trkpt>
      <trkpt lat="42.4361" lon="0.05121">
        <ele>946.9</ele>
        <time>2016-07-31T09:37:12Z</time>
      </trkpt>
      <trkpt lat="42.43608" lon="0.05118">
        <ele>947.4</ele>
        <time>2016-07-31T09:37:14Z</time>
      </trkpt>
      <trkpt lat="42.43606" lon="0.05115">
        <ele>947.8</ele>
        <time>2016-07-31T09:37:16Z</time>
      </trkpt>
      <trkpt lat="42.43603" lon="0.05113">
        <ele>948.1</ele>
        <time>2016-07-31T09:37:18Z</time>
      </trkpt>
      <trkpt lat="42.43601" lon="0.0511">
        <ele>948.5</ele>
        <time>2016-07-31T09:37:20Z</time>
      </trkpt>
      <trkpt lat="42.43598" lon="0.05107">
        <ele>949</ele>
        <time>2016-07-31T09:37:22Z</time>
      </trkpt>
      <trkpt lat="42.43596" lon="0.05103">
        <ele>949.5</ele>
        <time>2016-07-31T09:37:24Z</time>
      </trkpt>
      <trkpt lat="42.43592" lon="0.05099">
        <ele>950.2</ele>
        <time>2016-07-31T09:37:26Z</time>
      </trkpt>
      <trkpt lat="42.43588" lon="0.05095">
        <ele>950.8</ele>
        <time>2016-07-31T09:37:28Z</time>
      </trkpt>
      <trkpt lat="42.43585" lon="0.05091">
        <ele>951.5</ele>
        <time>2016-07-31T09:37:30Z</time>
      </trkpt>
      <trkpt lat="42.43582" lon="0.05087">
        <ele>952.2</ele>
        <time>2016-07-31T09:37:32Z</time>
      </trkpt>
      <trkpt lat="42.43579" lon="0.05083">
        <ele>952.8</ele>
        <time>2016-07-31T09:37:34Z</time>
      </trkpt>
      <trkpt lat="42.43576" lon="0.05081">
        <ele>953.1</ele>
        <time>2016-07-31T09:37:36Z</time>
      </trkpt>
      <trkpt lat="42.43574" lon="0.05078">
        <ele>953.6</ele>
        <time>2016-07-31T09:37:38Z</time>
      </trkpt>
      <trkpt lat="42.43572" lon="0.05074">
        <ele>954.2</ele>
        <time>2016-07-31T09:37:40Z</time>
      </trkpt>
      <trkpt lat="42.43569" lon="0.05071">
        <ele>954.7</ele>
        <time>2016-07-31T09:37:42Z</time>
      </trkpt>
      <trkpt lat="42.43565" lon="0.05068">
        <ele>955.1</ele>
        <time>2016-07-31T09:37:44Z</time>
      </trkpt>
      <trkpt lat="42.43562" lon="0.05065">
        <ele>955.6</ele>
        <time>2016-07-31T09:37:46Z</time>
      </trkpt>
      <trkpt lat="42.43559" lon="0.05063">
        <ele>955.9</ele>
        <time>2016-07-31T09:37:48Z</time>
      </trkpt>
      <trkpt lat="42.43555" lon="0.0506">
        <ele>956.2</ele>
        <time>2016-07-31T09:37:50Z</time>
      </trkpt>
      <trkpt lat="42.43551" lon="0.05058">
        <ele>956.5</ele>
        <time>2016-07-31T09:37:52Z</time>
      </trkpt>
      <trkpt lat="42.43548" lon="0.05055">
        <ele>957</ele>
        <time>2016-07-31T09:37:54Z</time>
      </trkpt>
      <trkpt lat="42.43544" lon="0.05052">
        <ele>957.4</ele>
        <time>2016-07-31T09:37:56Z</time>
      </trkpt>
      <trkpt lat="42.4354" lon="0.05049">
        <ele>957.6</ele>
        <time>2016-07-31T09:37:58Z</time>
      </trkpt>
      <trkpt lat="42.43536" lon="0.05047">
        <ele>957.7</ele>
        <time>2016-07-31T09:38:00Z</time>
      </trkpt>
      <trkpt lat="42.43532" lon="0.05045">
        <ele>957.9</ele>
        <time>2016-07-31T09:38:02Z</time>
      </trkpt>
      <trkpt lat="42.43529" lon="0.05043">
        <ele>958.1</ele>
        <time>2016-07-31T09:38:04Z</time>
      </trkpt>
      <trkpt lat="42.43526" lon="0.0504">
        <ele>958.3</ele>
        <time>2016-07-31T09:38:06Z</time>
      </trkpt>
      <trkpt lat="42.43522" lon="0.05038">
        <ele>958.4</ele>
        <time>2016-07-31T09:38:08Z</time>
      </trkpt>
      <trkpt lat="42.43518" lon="0.05036">
        <ele>958.5</ele>
        <time>2016-07-31T09:38:10Z</time>
      </trkpt>
      <trkpt lat="42.43515" lon="0.05034">
        <ele>958.6</ele>
        <time>2016-07-31T09:38:12Z</time>
      </trkpt>
      <trkpt lat="42.43511" lon="0.05032">
        <ele>958.6</ele>
        <time>2016-07-31T09:38:14Z</time>
      </trkpt>
      <trkpt lat="42.43507" lon="0.0503">
        <ele>958.8</ele>
        <time>2016-07-31T09:38:16Z</time>
      </trkpt>
      <trkpt lat="42.43503" lon="0.05028">
        <ele>959</ele>
        <time>2016-07-31T09:38:18Z</time>
      </trkpt>
      <trkpt lat="42.435" lon="0.05026">
        <ele>959.3</ele>
        <time>2016-07-31T09:38:20Z</time>
      </trkpt>
      <trkpt lat="42.43497" lon="0.05023">
        <ele>959.6</ele>
        <time>2016-07-31T09:38:22Z</time>
      </trkpt>
      <trkpt lat="42.43493" lon="0.05021">
        <ele>959.8</ele>
        <time>2016-07-31T09:38:24Z</time>
      </trkpt>
      <trkpt lat="42.4349" lon="0.05019">
        <ele>960.1</ele>
        <time>2016-07-31T09:38:26Z</time>
      </trkpt>
      <trkpt lat="42.43487" lon="0.05017">
        <ele>960.4</ele>
        <time>2016-07-31T09:38:28Z</time>
      </trkpt>
      <trkpt lat="42.43484" lon="0.05014">
        <ele>960.8</ele>
        <time>2016-07-31T09:38:30Z</time>
      </trkpt>
      <trkpt lat="42.43481" lon="0.05012">
        <ele>961.2</ele>
        <time>2016-07-31T09:38:32Z</time>
      </trkpt>
      <trkpt lat="42.43478" lon="0.05009">
        <ele>961.5</ele>
        <time>2016-07-31T09:38:34Z</time>
      </trkpt>
      <trkpt lat="42.43475" lon="0.05007">
        <ele>961.9</ele>
        <time>2016-07-31T09:38:36Z</time>
      </trkpt>
      <trkpt lat="42.43473" lon="0.05005">
        <ele>962.2</ele>
        <time>2016-07-31T09:38:38Z</time>
      </trkpt>
      <trkpt lat="42.4347" lon="0.05003">
        <ele>962.5</ele>
        <time>2016-07-31T09:38:40Z</time>
      </trkpt>
      <trkpt lat="42.43468" lon="0.05001">
        <ele>962.8</ele>
        <time>2016-07-31T09:38:42Z</time>
      </trkpt>
      <trkpt lat="42.43464" lon="0.04999">
        <ele>963.1</ele>
        <time>2016-07-31T09:38:44Z</time>
      </trkpt>
      <trkpt lat="42.43462" lon="0.04996">
        <ele>963.6</ele>
        <time>2016-07-31T09:38:46Z</time>
      </trkpt>
      <trkpt lat="42.43459" lon="0.04993">
        <ele>964.2</ele>
        <time>2016-07-31T09:38:48Z</time>
      </trkpt>
      <trkpt lat="42.43456" lon="0.04991">
        <ele>964.6</ele>
        <time>2016-07-31T09:38:50Z</time>
      </trkpt>
      <trkpt lat="42.43454" lon="0.0499">
        <ele>964.7</ele>
        <time>2016-07-31T09:38:52Z</time>
      </trkpt>
      <trkpt lat="42.43451" lon="0.04988">
        <ele>964.9</ele>
        <time>2016-07-31T09:38:54Z</time>
      </trkpt>
      <trkpt lat="42.43448" lon="0.04986">
        <ele>965.3</ele>
        <time>2016-07-31T09:38:56Z</time>
      </trkpt>
      <trkpt lat="42.43445" lon="0.04984">
        <ele>965.6</ele>
        <time>2016-07-31T09:38:58Z</time>
      </trkpt>
      <trkpt lat="42.43442" lon="0.04981">
        <ele>966</ele>
        <time>2016-07-31T09:39:00Z</time>
      </trkpt>
      <trkpt lat="42.43439" lon="0.04978">
        <ele>966.5</ele>
        <time>2016-07-31T09:39:02Z</time>
      </trkpt>
      <trkpt lat="42.43435" lon="0.04976">
        <ele>966.7</ele>
        <time>2016-07-31T09:39:04Z</time>
      </trkpt>
      <trkpt lat="42.43432" lon="0.04975">
        <ele>966.8</ele>
        <time>2016-07-31T09:39:06Z</time>
      </trkpt>
      <trkpt lat="42.43429" lon="0.04972">
        <ele>967.2</ele>
        <time>2016-07-31T09:39:08Z</time>
      </trkpt>
      <trkpt lat="42.43426" lon="0.0497">
        <ele>967.6</ele>
        <time>2016-07-31T09:39:10Z</time>
      </trkpt>
      <trkpt lat="42.43423" lon="0.04968">
        <ele>967.9</ele>
        <time>2016-07-31T09:39:12Z</time>
      </trkpt>
      <trkpt lat="42.4342" lon="0.04965">
        <ele>968.2</ele>
        <time>2016-07-31T09:39:14Z</time>
      </trkpt>
      <trkpt lat="42.43417" lon="0.04963">
        <ele>968.5</ele>
        <time>2016-07-31T09:39:16Z</time>
      </trkpt>
      <trkpt lat="42.43414" lon="0.04961">
        <ele>968.8</ele>
        <time>2016-07-31T09:39:18Z</time>
      </trkpt>
      <trkpt lat="42.43412" lon="0.04959">
        <ele>969.3</ele>
        <time>2016-07-31T09:39:20Z</time>
      </trkpt>
      <trkpt lat="42.43409" lon="0.04957">
        <ele>969.5</ele>
        <time>2016-07-31T09:39:22Z</time>
      </trkpt>
      <trkpt lat="42.43406" lon="0.04955">
        <ele>969.6</ele>
        <time>2016-07-31T09:39:24Z</time>
      </trkpt>
      <trkpt lat="42.43403" lon="0.04952">
        <ele>969.9</ele>
        <time>2016-07-31T09:39:26Z</time>
      </trkpt>
      <trkpt lat="42.434" lon="0.04949">
        <ele>970.3</ele>
        <time>2016-07-31T09:39:28Z</time>
      </trkpt>
      <trkpt lat="42.43397" lon="0.04947">
        <ele>970.6</ele>
        <time>2016-07-31T09:39:30Z</time>
      </trkpt>
      <trkpt lat="42.43394" lon="0.04944">
        <ele>971</ele>
        <time>2016-07-31T09:39:32Z</time>
      </trkpt>
      <trkpt lat="42.43391" lon="0.04941">
        <ele>971.3</ele>
        <time>2016-07-31T09:39:34Z</time>
      </trkpt>
      <trkpt lat="42.43388" lon="0.04938">
        <ele>971.7</ele>
        <time>2016-07-31T09:39:36Z</time>
      </trkpt>
      <trkpt lat="42.43385" lon="0.04935">
        <ele>972</ele>
        <time>2016-07-31T09:39:38Z</time>
      </trkpt>
      <trkpt lat="42.43382" lon="0.04933">
        <ele>972.3</ele>
        <time>2016-07-31T09:39:40Z</time>
      </trkpt>
      <trkpt lat="42.43378" lon="0.0493">
        <ele>972.5</ele>
        <time>2016-07-31T09:39:42Z</time>
      </trkpt>
      <trkpt lat="42.43375" lon="0.04928">
        <ele>972.7</ele>
        <time>2016-07-31T09:39:44Z</time>
      </trkpt>
      <trkpt lat="42.43372" lon="0.04926">
        <ele>972.5</ele>
        <time>2016-07-31T09:39:46Z</time>
      </trkpt>
      <trkpt lat="42.43369" lon="0.04924">
        <ele>972.4</ele>
        <time>2016-07-31T09:39:48Z</time>
      </trkpt>
      <trkpt lat="42.43365" lon="0.04922">
        <ele>972.2</ele>
        <time>2016-07-31T09:39:50Z</time>
      </trkpt>
      <trkpt lat="42.43362" lon="0.0492">
        <ele>971.9</ele>
        <time>2016-07-31T09:39:52Z</time>
      </trkpt>
      <trkpt lat="42.43359" lon="0.04919">
        <ele>971.7</ele>
        <time>2016-07-31T09:39:54Z</time>
      </trkpt>
      <trkpt lat="42.43355" lon="0.04916">
        <ele>971.5</ele>
        <time>2016-07-31T09:39:56Z</time>
      </trkpt>
      <trkpt lat="42.43351" lon="0.04915">
        <ele>971.2</ele>
        <time>2016-07-31T09:39:58Z</time>
      </trkpt>
      <trkpt lat="42.43348" lon="0.04913">
        <ele>970.9</ele>
        <time>2016-07-31T09:40:00Z</time>
      </trkpt>
      <trkpt lat="42.43345" lon="0.04911">
        <ele>970.6</ele>
        <time>2016-07-31T09:40:02Z</time>
      </trkpt>
      <trkpt lat="42.43341" lon="0.04909">
        <ele>970.3</ele>
        <time>2016-07-31T09:40:04Z</time>
      </trkpt>
      <trkpt lat="42.43337" lon="0.04907">
        <ele>970</ele>
        <time>2016-07-31T09:40:06Z</time>
      </trkpt>
      <trkpt lat="42.43334" lon="0.04905">
        <ele>969.8</ele>
        <time>2016-07-31T09:40:08Z</time>
      </trkpt>
      <trkpt lat="42.4333" lon="0.04903">
        <ele>969.5</ele>
        <time>2016-07-31T09:40:10Z</time>
      </trkpt>
      <trkpt lat="42.43326" lon="0.049">
        <ele>969.2</ele>
        <time>2016-07-31T09:40:12Z</time>
      </trkpt>
      <trkpt lat="42.43323" lon="0.04898">
        <ele>969.1</ele>
        <time>2016-07-31T09:40:14Z</time>
      </trkpt>
      <trkpt lat="42.4332" lon="0.04895">
        <ele>969.1</ele>
        <time>2016-07-31T09:40:16Z</time>
      </trkpt>
      <trkpt lat="42.43317" lon="0.04891">
        <ele>969.2</ele>
        <time>2016-07-31T09:40:18Z</time>
      </trkpt>
      <trkpt lat="42.43314" lon="0.04888">
        <ele>969.3</ele>
        <time>2016-07-31T09:40:20Z</time>
      </trkpt>
      <trkpt lat="42.43311" lon="0.04885">
        <ele>969.3</ele>
        <time>2016-07-31T09:40:22Z</time>
      </trkpt>
      <trkpt lat="42.43308" lon="0.04881">
        <ele>969.5</ele>
        <time>2016-07-31T09:40:24Z</time>
      </trkpt>
      <trkpt lat="42.43306" lon="0.04877">
        <ele>969.7</ele>
        <time>2016-07-31T09:40:26Z</time>
      </trkpt>
      <trkpt lat="42.43303" lon="0.04874">
        <ele>969.8</ele>
        <time>2016-07-31T09:40:28Z</time>
      </trkpt>
      <trkpt lat="42.433" lon="0.0487">
        <ele>970</ele>
        <time>2016-07-31T09:40:30Z</time>
      </trkpt>
      <trkpt lat="42.43297" lon="0.04866">
        <ele>970.4</ele>
        <time>2016-07-31T09:40:32Z</time>
      </trkpt>
      <trkpt lat="42.43294" lon="0.04862">
        <ele>970.7</ele>
        <time>2016-07-31T09:40:34Z</time>
      </trkpt>
      <trkpt lat="42.43291" lon="0.04858">
        <ele>970.9</ele>
        <time>2016-07-31T09:40:36Z</time>
      </trkpt>
      <trkpt lat="42.43288" lon="0.04855">
        <ele>971.4</ele>
        <time>2016-07-31T09:40:38Z</time>
      </trkpt>
      <trkpt lat="42.43284" lon="0.04851">
        <ele>971.9</ele>
        <time>2016-07-31T09:40:40Z</time>
      </trkpt>
      <trkpt lat="42.43281" lon="0.04847">
        <ele>972.6</ele>
        <time>2016-07-31T09:40:42Z</time>
      </trkpt>
      <trkpt lat="42.4328" lon="0.04842">
        <ele>973.6</ele>
        <time>2016-07-31T09:40:44Z</time>
      </trkpt>
      <trkpt lat="42.43281" lon="0.04837">
        <ele>974.8</ele>
        <time>2016-07-31T09:40:46Z</time>
      </trkpt>
      <trkpt lat="42.43285" lon="0.04835">
        <ele>975.7</ele>
        <time>2016-07-31T09:40:48Z</time>
      </trkpt>
      <trkpt lat="42.4329" lon="0.04837">
        <ele>975.8</ele>
        <time>2016-07-31T09:40:50Z</time>
      </trkpt>
      <trkpt lat="42.43293" lon="0.04841">
        <ele>975.5</ele>
        <time>2016-07-31T09:40:52Z</time>
      </trkpt>
      <trkpt lat="42.43297" lon="0.04845">
        <ele>975.2</ele>
        <time>2016-07-31T09:40:54Z</time>
      </trkpt>
      <trkpt lat="42.433" lon="0.0485">
        <ele>975</ele>
        <time>2016-07-31T09:40:56Z</time>
      </trkpt>
      <trkpt lat="42.43304" lon="0.04853">
        <ele>974.9</ele>
        <time>2016-07-31T09:40:58Z</time>
      </trkpt>
      <trkpt lat="42.43308" lon="0.04857">
        <ele>974.9</ele>
        <time>2016-07-31T09:41:00Z</time>
      </trkpt>
      <trkpt lat="42.43312" lon="0.04861">
        <ele>974.9</ele>
        <time>2016-07-31T09:41:02Z</time>
      </trkpt>
      <trkpt lat="42.43315" lon="0.04864">
        <ele>974.9</ele>
        <time>2016-07-31T09:41:04Z</time>
      </trkpt>
      <trkpt lat="42.43318" lon="0.04866">
        <ele>975.1</ele>
        <time>2016-07-31T09:41:06Z</time>
      </trkpt>
      <trkpt lat="42.43321" lon="0.04869">
        <ele>975.3</ele>
        <time>2016-07-31T09:41:09Z</time>
      </trkpt>
      <trkpt lat="42.43325" lon="0.0487">
        <ele>975.6</ele>
        <time>2016-07-31T09:41:11Z</time>
      </trkpt>
      <trkpt lat="42.43328" lon="0.04872">
        <ele>975.8</ele>
        <time>2016-07-31T09:41:13Z</time>
      </trkpt>
      <trkpt lat="42.43331" lon="0.04874">
        <ele>976.2</ele>
        <time>2016-07-31T09:41:15Z</time>
      </trkpt>
      <trkpt lat="42.43334" lon="0.04875">
        <ele>976.6</ele>
        <time>2016-07-31T09:41:17Z</time>
      </trkpt>
      <trkpt lat="42.43337" lon="0.04876">
        <ele>977.2</ele>
        <time>2016-07-31T09:41:19Z</time>
      </trkpt>
      <trkpt lat="42.43341" lon="0.04877">
        <ele>977.8</ele>
        <time>2016-07-31T09:41:21Z</time>
      </trkpt>
      <trkpt lat="42.43345" lon="0.04877">
        <ele>978.6</ele>
        <time>2016-07-31T09:41:23Z</time>
      </trkpt>
      <trkpt lat="42.43348" lon="0.04876">
        <ele>979.6</ele>
        <time>2016-07-31T09:41:25Z</time>
      </trkpt>
      <trkpt lat="42.43352" lon="0.04876">
        <ele>980.5</ele>
        <time>2016-07-31T09:41:27Z</time>
      </trkpt>
      <trkpt lat="42.43356" lon="0.04875">
        <ele>981.6</ele>
        <time>2016-07-31T09:41:29Z</time>
      </trkpt>
      <trkpt lat="42.43359" lon="0.04874">
        <ele>982.6</ele>
        <time>2016-07-31T09:41:31Z</time>
      </trkpt>
      <trkpt lat="42.43363" lon="0.04873">
        <ele>983.6</ele>
        <time>2016-07-31T09:41:33Z</time>
      </trkpt>
      <trkpt lat="42.43367" lon="0.04873">
        <ele>984.6</ele>
        <time>2016-07-31T09:41:35Z</time>
      </trkpt>
      <trkpt lat="42.4337" lon="0.04873">
        <ele>985.5</ele>
        <time>2016-07-31T09:41:37Z</time>
      </trkpt>
      <trkpt lat="42.43374" lon="0.04873">
        <ele>986.3</ele>
        <time>2016-07-31T09:41:39Z</time>
      </trkpt>
      <trkpt lat="42.43378" lon="0.04873">
        <ele>986.8</ele>
        <time>2016-07-31T09:41:41Z</time>
      </trkpt>
      <trkpt lat="42.43381" lon="0.04874">
        <ele>987.1</ele>
        <time>2016-07-31T09:41:43Z</time>
      </trkpt>
      <trkpt lat="42.43385" lon="0.04874">
        <ele>987.4</ele>
        <time>2016-07-31T09:41:45Z</time>
      </trkpt>
      <trkpt lat="42.43388" lon="0.04874">
        <ele>987.8</ele>
        <time>2016-07-31T09:41:47Z</time>
      </trkpt>
      <trkpt lat="42.43392" lon="0.04874">
        <ele>988.2</ele>
        <time>2016-07-31T09:41:49Z</time>
      </trkpt>
      <trkpt lat="42.43396" lon="0.04875">
        <ele>988.5</ele>
        <time>2016-07-31T09:41:51Z</time>
      </trkpt>
      <trkpt lat="42.434" lon="0.04876">
        <ele>988.8</ele>
        <time>2016-07-31T09:41:53Z</time>
      </trkpt>
      <trkpt lat="42.43403" lon="0.04876">
        <ele>989</ele>
        <time>2016-07-31T09:41:55Z</time>
      </trkpt>
      <trkpt lat="42.43406" lon="0.04877">
        <ele>989.2</ele>
        <time>2016-07-31T09:41:57Z</time>
      </trkpt>
      <trkpt lat="42.4341" lon="0.04878">
        <ele>989.5</ele>
        <time>2016-07-31T09:41:59Z</time>
      </trkpt>
      <trkpt lat="42.43414" lon="0.04879">
        <ele>989.7</ele>
        <time>2016-07-31T09:42:01Z</time>
      </trkpt>
      <trkpt lat="42.43418" lon="0.04879">
        <ele>990.1</ele>
        <time>2016-07-31T09:42:03Z</time>
      </trkpt>
      <trkpt lat="42.43422" lon="0.0488">
        <ele>990.5</ele>
        <time>2016-07-31T09:42:05Z</time>
      </trkpt>
      <trkpt lat="42.43425" lon="0.0488">
        <ele>990.8</ele>
        <time>2016-07-31T09:42:07Z</time>
      </trkpt>
      <trkpt lat="42.43429" lon="0.0488">
        <ele>991.3</ele>
        <time>2016-07-31T09:42:09Z</time>
      </trkpt>
      <trkpt lat="42.43432" lon="0.0488">
        <ele>991.6</ele>
        <time>2016-07-31T09:42:11Z</time>
      </trkpt>
      <trkpt lat="42.43436" lon="0.04882">
        <ele>991.6</ele>
        <time>2016-07-31T09:42:13Z</time>
      </trkpt>
      <trkpt lat="42.43439" lon="0.04881">
        <ele>992</ele>
        <time>2016-07-31T09:42:15Z</time>
      </trkpt>
      <trkpt lat="42.43442" lon="0.04881">
        <ele>992.5</ele>
        <time>2016-07-31T09:42:17Z</time>
      </trkpt>
      <trkpt lat="42.43446" lon="0.04881">
        <ele>992.9</ele>
        <time>2016-07-31T09:42:19Z</time>
      </trkpt>
      <trkpt lat="42.4345" lon="0.04882">
        <ele>993.3</ele>
        <time>2016-07-31T09:42:21Z</time>
      </trkpt>
      <trkpt lat="42.43454" lon="0.04882">
        <ele>993.7</ele>
        <time>2016-07-31T09:42:23Z</time>
      </trkpt>
      <trkpt lat="42.43458" lon="0.04883">
        <ele>994.1</ele>
        <time>2016-07-31T09:42:25Z</time>
      </trkpt>
      <trkpt lat="42.43462" lon="0.04883">
        <ele>994.2</ele>
        <time>2016-07-31T09:42:27Z</time>
      </trkpt>
      <trkpt lat="42.43466" lon="0.04883">
        <ele>994.5</ele>
        <time>2016-07-31T09:42:29Z</time>
      </trkpt>
      <trkpt lat="42.43469" lon="0.04884">
        <ele>994.7</ele>
        <time>2016-07-31T09:42:31Z</time>
      </trkpt>
      <trkpt lat="42.43473" lon="0.04884">
        <ele>994.9</ele>
        <time>2016-07-31T09:42:33Z</time>
      </trkpt>
      <trkpt lat="42.43477" lon="0.04885">
        <ele>995</ele>
        <time>2016-07-31T09:42:35Z</time>
      </trkpt>
      <trkpt lat="42.4348" lon="0.04885">
        <ele>995.1</ele>
        <time>2016-07-31T09:42:37Z</time>
      </trkpt>
      <trkpt lat="42.43484" lon="0.04886">
        <ele>995.3</ele>
        <time>2016-07-31T09:42:39Z</time>
      </trkpt>
      <trkpt lat="42.43488" lon="0.04887">
        <ele>995.4</ele>
        <time>2016-07-31T09:42:41Z</time>
      </trkpt>
      <trkpt lat="42.43492" lon="0.04887">
        <ele>995.5</ele>
        <time>2016-07-31T09:42:43Z</time>
      </trkpt>
      <trkpt lat="42.43496" lon="0.04888">
        <ele>995.7</ele>
        <time>2016-07-31T09:42:45Z</time>
      </trkpt>
      <trkpt lat="42.435" lon="0.04889">
        <ele>995.8</ele>
        <time>2016-07-31T09:42:47Z</time>
      </trkpt>
      <trkpt lat="42.43503" lon="0.04889">
        <ele>995.9</ele>
        <time>2016-07-31T09:42:49Z</time>
      </trkpt>
      <trkpt lat="42.43507" lon="0.0489">
        <ele>996</ele>
        <time>2016-07-31T09:42:51Z</time>
      </trkpt>
      <trkpt lat="42.43512" lon="0.04891">
        <ele>996.2</ele>
        <time>2016-07-31T09:42:53Z</time>
      </trkpt>
      <trkpt lat="42.43515" lon="0.04891">
        <ele>996.4</ele>
        <time>2016-07-31T09:42:55Z</time>
      </trkpt>
      <trkpt lat="42.43519" lon="0.04892">
        <ele>996.6</ele>
        <time>2016-07-31T09:42:57Z</time>
      </trkpt>
      <trkpt lat="42.43522" lon="0.04892">
        <ele>996.8</ele>
        <time>2016-07-31T09:42:59Z</time>
      </trkpt>
      <trkpt lat="42.43526" lon="0.04892">
        <ele>997</ele>
        <time>2016-07-31T09:43:01Z</time>
      </trkpt>
      <trkpt lat="42.43529" lon="0.04893">
        <ele>997.2</ele>
        <time>2016-07-31T09:43:03Z</time>
      </trkpt>
      <trkpt lat="42.43532" lon="0.04893">
        <ele>997.4</ele>
        <time>2016-07-31T09:43:05Z</time>
      </trkpt>
      <trkpt lat="42.43536" lon="0.04893">
        <ele>997.6</ele>
        <time>2016-07-31T09:43:07Z</time>
      </trkpt>
      <trkpt lat="42.4354" lon="0.04894">
        <ele>997.8</ele>
        <time>2016-07-31T09:43:09Z</time>
      </trkpt>
      <trkpt lat="42.43543" lon="0.04894">
        <ele>997.5</ele>
        <time>2016-07-31T09:43:11Z</time>
      </trkpt>
      <trkpt lat="42.43547" lon="0.04894">
        <ele>996.7</ele>
        <time>2016-07-31T09:43:13Z</time>
      </trkpt>
      <trkpt lat="42.4355" lon="0.04895">
        <ele>995.8</ele>
        <time>2016-07-31T09:43:15Z</time>
      </trkpt>
      <trkpt lat="42.43554" lon="0.04896">
        <ele>994.9</ele>
        <time>2016-07-31T09:43:17Z</time>
      </trkpt>
      <trkpt lat="42.43557" lon="0.04896">
        <ele>994</ele>
        <time>2016-07-31T09:43:19Z</time>
      </trkpt>
      <trkpt lat="42.43561" lon="0.04897">
        <ele>993.1</ele>
        <time>2016-07-31T09:43:21Z</time>
      </trkpt>
      <trkpt lat="42.43564" lon="0.04897">
        <ele>992.4</ele>
        <time>2016-07-31T09:43:23Z</time>
      </trkpt>
      <trkpt lat="42.43568" lon="0.04895">
        <ele>991.8</ele>
        <time>2016-07-31T09:43:25Z</time>
      </trkpt>
      <trkpt lat="42.4357" lon="0.04892">
        <ele>991.7</ele>
        <time>2016-07-31T09:43:27Z</time>
      </trkpt>
      <trkpt lat="42.43571" lon="0.04888">
        <ele>991.8</ele>
        <time>2016-07-31T09:43:29Z</time>
      </trkpt>
      <trkpt lat="42.4357" lon="0.04883">
        <ele>992.7</ele>
        <time>2016-07-31T09:43:32Z</time>
      </trkpt>
      <trkpt lat="42.43566" lon="0.04882">
        <ele>993.9</ele>
        <time>2016-07-31T09:43:34Z</time>
      </trkpt>
      <trkpt lat="42.43561" lon="0.04883">
        <ele>995.1</ele>
        <time>2016-07-31T09:43:36Z</time>
      </trkpt>
      <trkpt lat="42.43557" lon="0.04881">
        <ele>996.4</ele>
        <time>2016-07-31T09:43:38Z</time>
      </trkpt>
      <trkpt lat="42.43553" lon="0.04879">
        <ele>997.9</ele>
        <time>2016-07-31T09:43:40Z</time>
      </trkpt>
      <trkpt lat="42.43549" lon="0.04877">
        <ele>999.3</ele>
        <time>2016-07-31T09:43:42Z</time>
      </trkpt>
      <trkpt lat="42.43545" lon="0.04875">
        <ele>1000.9</ele>
        <time>2016-07-31T09:43:44Z</time>
      </trkpt>
      <trkpt lat="42.43542" lon="0.04874">
        <ele>1001.9</ele>
        <time>2016-07-31T09:43:46Z</time>
      </trkpt>
      <trkpt lat="42.43538" lon="0.04872">
        <ele>1001.6</ele>
        <time>2016-07-31T09:43:48Z</time>
      </trkpt>
      <trkpt lat="42.43534" lon="0.0487">
        <ele>1001.4</ele>
        <time>2016-07-31T09:43:50Z</time>
      </trkpt>
      <trkpt lat="42.4353" lon="0.04868">
        <ele>1001.2</ele>
        <time>2016-07-31T09:43:52Z</time>
      </trkpt>
      <trkpt lat="42.43527" lon="0.04866">
        <ele>1001</ele>
        <time>2016-07-31T09:43:54Z</time>
      </trkpt>
      <trkpt lat="42.43524" lon="0.04864">
        <ele>1000.9</ele>
        <time>2016-07-31T09:43:56Z</time>
      </trkpt>
      <trkpt lat="42.4352" lon="0.04862">
        <ele>1000.8</ele>
        <time>2016-07-31T09:43:58Z</time>
      </trkpt>
      <trkpt lat="42.43517" lon="0.0486">
        <ele>1000.8</ele>
        <time>2016-07-31T09:44:00Z</time>
      </trkpt>
      <trkpt lat="42.43514" lon="0.04858">
        <ele>1000.8</ele>
        <time>2016-07-31T09:44:02Z</time>
      </trkpt>
      <trkpt lat="42.43512" lon="0.04856">
        <ele>1000.9</ele>
        <time>2016-07-31T09:44:04Z</time>
      </trkpt>
      <trkpt lat="42.43509" lon="0.04854">
        <ele>1001</ele>
        <time>2016-07-31T09:44:06Z</time>
      </trkpt>
      <trkpt lat="42.43506" lon="0.04851">
        <ele>1001.1</ele>
        <time>2016-07-31T09:44:08Z</time>
      </trkpt>
      <trkpt lat="42.43504" lon="0.04848">
        <ele>1001.4</ele>
        <time>2016-07-31T09:44:10Z</time>
      </trkpt>
      <trkpt lat="42.435" lon="0.04845">
        <ele>1001.7</ele>
        <time>2016-07-31T09:44:12Z</time>
      </trkpt>
      <trkpt lat="42.43497" lon="0.04842">
        <ele>1002.1</ele>
        <time>2016-07-31T09:44:14Z</time>
      </trkpt>
      <trkpt lat="42.43493" lon="0.04839">
        <ele>1002.5</ele>
        <time>2016-07-31T09:44:16Z</time>
      </trkpt>
      <trkpt lat="42.4349" lon="0.04836">
        <ele>1003</ele>
        <time>2016-07-31T09:44:18Z</time>
      </trkpt>
      <trkpt lat="42.43487" lon="0.04833">
        <ele>1003.5</ele>
        <time>2016-07-31T09:44:20Z</time>
      </trkpt>
      <trkpt lat="42.43484" lon="0.04829">
        <ele>1004.2</ele>
        <time>2016-07-31T09:44:22Z</time>
      </trkpt>
      <trkpt lat="42.43482" lon="0.04825">
        <ele>1004.9</ele>
        <time>2016-07-31T09:44:24Z</time>
      </trkpt>
      <trkpt lat="42.4348" lon="0.04821">
        <ele>1005.6</ele>
        <time>2016-07-31T09:44:26Z</time>
      </trkpt>
      <trkpt lat="42.43479" lon="0.04817">
        <ele>1006.4</ele>
        <time>2016-07-31T09:44:28Z</time>
      </trkpt>
      <trkpt lat="42.43477" lon="0.04813">
        <ele>1007.2</ele>
        <time>2016-07-31T09:44:30Z</time>
      </trkpt>
      <trkpt lat="42.43475" lon="0.0481">
        <ele>1008.1</ele>
        <time>2016-07-31T09:44:32Z</time>
      </trkpt>
      <trkpt lat="42.43472" lon="0.04806">
        <ele>1008.9</ele>
        <time>2016-07-31T09:44:34Z</time>
      </trkpt>
      <trkpt lat="42.4347" lon="0.04804">
        <ele>1009.8</ele>
        <time>2016-07-31T09:44:36Z</time>
      </trkpt>
      <trkpt lat="42.43468" lon="0.04801">
        <ele>1010.6</ele>
        <time>2016-07-31T09:44:38Z</time>
      </trkpt>
      <trkpt lat="42.43466" lon="0.04798">
        <ele>1011.5</ele>
        <time>2016-07-31T09:44:40Z</time>
      </trkpt>
      <trkpt lat="42.43463" lon="0.04796">
        <ele>1012.3</ele>
        <time>2016-07-31T09:44:42Z</time>
      </trkpt>
      <trkpt lat="42.4346" lon="0.04793">
        <ele>1013.5</ele>
        <time>2016-07-31T09:44:45Z</time>
      </trkpt>
      <trkpt lat="42.43458" lon="0.04791">
        <ele>1013.9</ele>
        <time>2016-07-31T09:44:47Z</time>
      </trkpt>
      <trkpt lat="42.43454" lon="0.04788">
        <ele>1013.7</ele>
        <time>2016-07-31T09:44:50Z</time>
      </trkpt>
      <trkpt lat="42.4345" lon="0.04786">
        <ele>1013.4</ele>
        <time>2016-07-31T09:44:53Z</time>
      </trkpt>
      <trkpt lat="42.43448" lon="0.04785">
        <ele>1013.3</ele>
        <time>2016-07-31T09:44:55Z</time>
      </trkpt>
      <trkpt lat="42.43445" lon="0.04782">
        <ele>1013.2</ele>
        <time>2016-07-31T09:44:57Z</time>
      </trkpt>
      <trkpt lat="42.43442" lon="0.0478">
        <ele>1013.1</ele>
        <time>2016-07-31T09:44:59Z</time>
      </trkpt>
      <trkpt lat="42.4344" lon="0.04778">
        <ele>1013</ele>
        <time>2016-07-31T09:45:01Z</time>
      </trkpt>
      <trkpt lat="42.43437" lon="0.04775">
        <ele>1013</ele>
        <time>2016-07-31T09:45:03Z</time>
      </trkpt>
      <trkpt lat="42.43434" lon="0.04773">
        <ele>1013</ele>
        <time>2016-07-31T09:45:05Z</time>
      </trkpt>
      <trkpt lat="42.43432" lon="0.04771">
        <ele>1013</ele>
        <time>2016-07-31T09:45:07Z</time>
      </trkpt>
      <trkpt lat="42.43429" lon="0.04768">
        <ele>1013.1</ele>
        <time>2016-07-31T09:45:09Z</time>
      </trkpt>
      <trkpt lat="42.43426" lon="0.04765">
        <ele>1013.2</ele>
        <time>2016-07-31T09:45:11Z</time>
      </trkpt>
      <trkpt lat="42.43423" lon="0.04762">
        <ele>1013.4</ele>
        <time>2016-07-31T09:45:13Z</time>
      </trkpt>
      <trkpt lat="42.43421" lon="0.04759">
        <ele>1013.6</ele>
        <time>2016-07-31T09:45:15Z</time>
      </trkpt>
      <trkpt lat="42.43419" lon="0.04757">
        <ele>1013.8</ele>
        <time>2016-07-31T09:45:17Z</time>
      </trkpt>
      <trkpt lat="42.43416" lon="0.04754">
        <ele>1014</ele>
        <time>2016-07-31T09:45:19Z</time>
      </trkpt>
      <trkpt lat="42.43413" lon="0.04751">
        <ele>1014.2</ele>
        <time>2016-07-31T09:45:21Z</time>
      </trkpt>
      <trkpt lat="42.4341" lon="0.04749">
        <ele>1014.5</ele>
        <time>2016-07-31T09:45:23Z</time>
      </trkpt>
      <trkpt lat="42.43408" lon="0.04747">
        <ele>1014.8</ele>
        <time>2016-07-31T09:45:25Z</time>
      </trkpt>
      <trkpt lat="42.43405" lon="0.04745">
        <ele>1015</ele>
        <time>2016-07-31T09:45:27Z</time>
      </trkpt>
      <trkpt lat="42.43402" lon="0.04743">
        <ele>1015.3</ele>
        <time>2016-07-31T09:45:29Z</time>
      </trkpt>
      <trkpt lat="42.434" lon="0.04739">
        <ele>1015.7</ele>
        <time>2016-07-31T09:45:31Z</time>
      </trkpt>
      <trkpt lat="42.43398" lon="0.04736">
        <ele>1016.2</ele>
        <time>2016-07-31T09:45:33Z</time>
      </trkpt>
      <trkpt lat="42.43396" lon="0.04733">
        <ele>1016.8</ele>
        <time>2016-07-31T09:45:35Z</time>
      </trkpt>
      <trkpt lat="42.43394" lon="0.04729">
        <ele>1017.4</ele>
        <time>2016-07-31T09:45:37Z</time>
      </trkpt>
      <trkpt lat="42.43392" lon="0.04725">
        <ele>1018.1</ele>
        <time>2016-07-31T09:45:39Z</time>
      </trkpt>
      <trkpt lat="42.4339" lon="0.04721">
        <ele>1018.9</ele>
        <time>2016-07-31T09:45:41Z</time>
      </trkpt>
      <trkpt lat="42.43388" lon="0.04718">
        <ele>1019.6</ele>
        <time>2016-07-31T09:45:43Z</time>
      </trkpt>
      <trkpt lat="42.43386" lon="0.04714">
        <ele>1020.3</ele>
        <time>2016-07-31T09:45:45Z</time>
      </trkpt>
      <trkpt lat="42.43384" lon="0.0471">
        <ele>1021.1</ele>
        <time>2016-07-31T09:45:47Z</time>
      </trkpt>
      <trkpt lat="42.43382" lon="0.04706">
        <ele>1021.7</ele>
        <time>2016-07-31T09:45:49Z</time>
      </trkpt>
      <trkpt lat="42.4338" lon="0.04702">
        <ele>1022</ele>
        <time>2016-07-31T09:45:51Z</time>
      </trkpt>
      <trkpt lat="42.43377" lon="0.04698">
        <ele>1022.4</ele>
        <time>2016-07-31T09:45:53Z</time>
      </trkpt>
      <trkpt lat="42.43375" lon="0.04694">
        <ele>1022.8</ele>
        <time>2016-07-31T09:45:55Z</time>
      </trkpt>
      <trkpt lat="42.43372" lon="0.04691">
        <ele>1022.5</ele>
        <time>2016-07-31T09:45:57Z</time>
      </trkpt>
      <trkpt lat="42.43369" lon="0.04689">
        <ele>1022.3</ele>
        <time>2016-07-31T09:45:59Z</time>
      </trkpt>
      <trkpt lat="42.43366" lon="0.04685">
        <ele>1022.2</ele>
        <time>2016-07-31T09:46:01Z</time>
      </trkpt>
      <trkpt lat="42.43363" lon="0.04682">
        <ele>1022</ele>
        <time>2016-07-31T09:46:03Z</time>
      </trkpt>
      <trkpt lat="42.4336" lon="0.04679">
        <ele>1021.9</ele>
        <time>2016-07-31T09:46:05Z</time>
      </trkpt>
      <trkpt lat="42.43357" lon="0.04676">
        <ele>1021.9</ele>
        <time>2016-07-31T09:46:07Z</time>
      </trkpt>
      <trkpt lat="42.43354" lon="0.04673">
        <ele>1021.8</ele>
        <time>2016-07-31T09:46:09Z</time>
      </trkpt>
      <trkpt lat="42.43351" lon="0.0467">
        <ele>1021.9</ele>
        <time>2016-07-31T09:46:11Z</time>
      </trkpt>
      <trkpt lat="42.43348" lon="0.04666">
        <ele>1022</ele>
        <time>2016-07-31T09:46:13Z</time>
      </trkpt>
      <trkpt lat="42.43346" lon="0.04663">
        <ele>1022.2</ele>
        <time>2016-07-31T09:46:15Z</time>
      </trkpt>
      <trkpt lat="42.43344" lon="0.0466">
        <ele>1022.5</ele>
        <time>2016-07-31T09:46:17Z</time>
      </trkpt>
      <trkpt lat="42.43342" lon="0.04657">
        <ele>1022.7</ele>
        <time>2016-07-31T09:46:19Z</time>
      </trkpt>
      <trkpt lat="42.43339" lon="0.04653">
        <ele>1023</ele>
        <time>2016-07-31T09:46:21Z</time>
      </trkpt>
      <trkpt lat="42.43337" lon="0.0465">
        <ele>1023.3</ele>
        <time>2016-07-31T09:46:23Z</time>
      </trkpt>
      <trkpt lat="42.43334" lon="0.04648">
        <ele>1023.5</ele>
        <time>2016-07-31T09:46:25Z</time>
      </trkpt>
      <trkpt lat="42.43332" lon="0.04645">
        <ele>1023.8</ele>
        <time>2016-07-31T09:46:27Z</time>
      </trkpt>
      <trkpt lat="42.4333" lon="0.04641">
        <ele>1024.3</ele>
        <time>2016-07-31T09:46:29Z</time>
      </trkpt>
      <trkpt lat="42.4333" lon="0.04637">
        <ele>1025.1</ele>
        <time>2016-07-31T09:46:31Z</time>
      </trkpt>
      <trkpt lat="42.43332" lon="0.04633">
        <ele>1025.8</ele>
        <time>2016-07-31T09:46:33Z</time>
      </trkpt>
      <trkpt lat="42.43335" lon="0.04631">
        <ele>1026.1</ele>
        <time>2016-07-31T09:46:35Z</time>
      </trkpt>
      <trkpt lat="42.43339" lon="0.04632">
        <ele>1026</ele>
        <time>2016-07-31T09:46:37Z</time>
      </trkpt>
      <trkpt lat="42.43343" lon="0.04634">
        <ele>1025.7</ele>
        <time>2016-07-31T09:46:39Z</time>
      </trkpt>
      <trkpt lat="42.43346" lon="0.04638">
        <ele>1025.3</ele>
        <time>2016-07-31T09:46:41Z</time>
      </trkpt>
      <trkpt lat="42.43349" lon="0.04641">
        <ele>1025</ele>
        <time>2016-07-31T09:46:43Z</time>
      </trkpt>
      <trkpt lat="42.43352" lon="0.04643">
        <ele>1024.9</ele>
        <time>2016-07-31T09:46:45Z</time>
      </trkpt>
      <trkpt lat="42.43356" lon="0.04644">
        <ele>1025</ele>
        <time>2016-07-31T09:46:47Z</time>
      </trkpt>
      <trkpt lat="42.43359" lon="0.04644">
        <ele>1025.1</ele>
        <time>2016-07-31T09:46:49Z</time>
      </trkpt>
      <trkpt lat="42.43362" lon="0.04643">
        <ele>1025.4</ele>
        <time>2016-07-31T09:46:51Z</time>
      </trkpt>
      <trkpt lat="42.43365" lon="0.04641">
        <ele>1025.7</ele>
        <time>2016-07-31T09:46:54Z</time>
      </trkpt>
      <trkpt lat="42.43365" lon="0.04636">
        <ele>1026.1</ele>
        <time>2016-07-31T09:46:56Z</time>
      </trkpt>
      <trkpt lat="42.43363" lon="0.04632">
        <ele>1026.4</ele>
        <time>2016-07-31T09:46:58Z</time>
      </trkpt>
      <trkpt lat="42.43361" lon="0.04628">
        <ele>1026.7</ele>
        <time>2016-07-31T09:47:00Z</time>
      </trkpt>
      <trkpt lat="42.43357" lon="0.04626">
        <ele>1026.9</ele>
        <time>2016-07-31T09:47:02Z</time>
      </trkpt>
      <trkpt lat="42.43353" lon="0.04624">
        <ele>1026.9</ele>
        <time>2016-07-31T09:47:04Z</time>
      </trkpt>
      <trkpt lat="42.4335" lon="0.04621">
        <ele>1026.8</ele>
        <time>2016-07-31T09:47:06Z</time>
      </trkpt>
      <trkpt lat="42.43347" lon="0.04619">
        <ele>1026.8</ele>
        <time>2016-07-31T09:47:08Z</time>
      </trkpt>
      <trkpt lat="42.43344" lon="0.04616">
        <ele>1026.7</ele>
        <time>2016-07-31T09:47:10Z</time>
      </trkpt>
      <trkpt lat="42.43341" lon="0.04613">
        <ele>1026.8</ele>
        <time>2016-07-31T09:47:12Z</time>
      </trkpt>
      <trkpt lat="42.43338" lon="0.0461">
        <ele>1026.9</ele>
        <time>2016-07-31T09:47:14Z</time>
      </trkpt>
      <trkpt lat="42.43335" lon="0.04607">
        <ele>1027</ele>
        <time>2016-07-31T09:47:16Z</time>
      </trkpt>
      <trkpt lat="42.43333" lon="0.04604">
        <ele>1027.2</ele>
        <time>2016-07-31T09:47:18Z</time>
      </trkpt>
      <trkpt lat="42.4333" lon="0.04601">
        <ele>1027.4</ele>
        <time>2016-07-31T09:47:20Z</time>
      </trkpt>
      <trkpt lat="42.43327" lon="0.04597">
        <ele>1027.7</ele>
        <time>2016-07-31T09:47:22Z</time>
      </trkpt>
      <trkpt lat="42.43325" lon="0.04594">
        <ele>1028.1</ele>
        <time>2016-07-31T09:47:24Z</time>
      </trkpt>
      <trkpt lat="42.43322" lon="0.0459">
        <ele>1028.5</ele>
        <time>2016-07-31T09:47:26Z</time>
      </trkpt>
      <trkpt lat="42.4332" lon="0.04587">
        <ele>1029</ele>
        <time>2016-07-31T09:47:28Z</time>
      </trkpt>
      <trkpt lat="42.43317" lon="0.04583">
        <ele>1029.6</ele>
        <time>2016-07-31T09:47:30Z</time>
      </trkpt>
      <trkpt lat="42.43314" lon="0.0458">
        <ele>1030.2</ele>
        <time>2016-07-31T09:47:32Z</time>
      </trkpt>
      <trkpt lat="42.4331" lon="0.04577">
        <ele>1030.9</ele>
        <time>2016-07-31T09:47:34Z</time>
      </trkpt>
      <trkpt lat="42.43307" lon="0.04575">
        <ele>1031.6</ele>
        <time>2016-07-31T09:47:36Z</time>
      </trkpt>
      <trkpt lat="42.43305" lon="0.04572">
        <ele>1032.4</ele>
        <time>2016-07-31T09:47:38Z</time>
      </trkpt>
      <trkpt lat="42.43302" lon="0.04568">
        <ele>1033.2</ele>
        <time>2016-07-31T09:47:40Z</time>
      </trkpt>
      <trkpt lat="42.433" lon="0.04565">
        <ele>1034.1</ele>
        <time>2016-07-31T09:47:42Z</time>
      </trkpt>
      <trkpt lat="42.43297" lon="0.04561">
        <ele>1035</ele>
        <time>2016-07-31T09:47:44Z</time>
      </trkpt>
      <trkpt lat="42.43294" lon="0.04558">
        <ele>1036.1</ele>
        <time>2016-07-31T09:47:46Z</time>
      </trkpt>
      <trkpt lat="42.43291" lon="0.04555">
        <ele>1037.2</ele>
        <time>2016-07-31T09:47:48Z</time>
      </trkpt>
      <trkpt lat="42.43288" lon="0.04551">
        <ele>1037.8</ele>
        <time>2016-07-31T09:47:50Z</time>
      </trkpt>
      <trkpt lat="42.43285" lon="0.04548">
        <ele>1038.4</ele>
        <time>2016-07-31T09:47:52Z</time>
      </trkpt>
      <trkpt lat="42.43282" lon="0.04545">
        <ele>1039</ele>
        <time>2016-07-31T09:47:54Z</time>
      </trkpt>
      <trkpt lat="42.43279" lon="0.04543">
        <ele>1039.5</ele>
        <time>2016-07-31T09:47:56Z</time>
      </trkpt>
      <trkpt lat="42.43276" lon="0.04541">
        <ele>1039.9</ele>
        <time>2016-07-31T09:47:58Z</time>
      </trkpt>
      <trkpt lat="42.43273" lon="0.04538">
        <ele>1039.9</ele>
        <time>2016-07-31T09:48:00Z</time>
      </trkpt>
      <trkpt lat="42.43269" lon="0.04535">
        <ele>1039.9</ele>
        <time>2016-07-31T09:48:02Z</time>
      </trkpt>
      <trkpt lat="42.43266" lon="0.04532">
        <ele>1040</ele>
        <time>2016-07-31T09:48:04Z</time>
      </trkpt>
      <trkpt lat="42.43262" lon="0.04529">
        <ele>1040.2</ele>
        <time>2016-07-31T09:48:06Z</time>
      </trkpt>
      <trkpt lat="42.43259" lon="0.04526">
        <ele>1040.3</ele>
        <time>2016-07-31T09:48:08Z</time>
      </trkpt>
      <trkpt lat="42.43256" lon="0.04523">
        <ele>1040.5</ele>
        <time>2016-07-31T09:48:10Z</time>
      </trkpt>
      <trkpt lat="42.43253" lon="0.04519">
        <ele>1040.7</ele>
        <time>2016-07-31T09:48:12Z</time>
      </trkpt>
      <trkpt lat="42.4325" lon="0.04516">
        <ele>1041</ele>
        <time>2016-07-31T09:48:14Z</time>
      </trkpt>
      <trkpt lat="42.43248" lon="0.04512">
        <ele>1041.3</ele>
        <time>2016-07-31T09:48:16Z</time>
      </trkpt>
      <trkpt lat="42.43245" lon="0.04508">
        <ele>1041.6</ele>
        <time>2016-07-31T09:48:18Z</time>
      </trkpt>
      <trkpt lat="42.43242" lon="0.04504">
        <ele>1042</ele>
        <time>2016-07-31T09:48:20Z</time>
      </trkpt>
      <trkpt lat="42.4324" lon="0.045">
        <ele>1042.5</ele>
        <time>2016-07-31T09:48:22Z</time>
      </trkpt>
      <trkpt lat="42.43238" lon="0.04496">
        <ele>1042.8</ele>
        <time>2016-07-31T09:48:24Z</time>
      </trkpt>
      <trkpt lat="42.43236" lon="0.04492">
        <ele>1043.1</ele>
        <time>2016-07-31T09:48:26Z</time>
      </trkpt>
      <trkpt lat="42.43235" lon="0.04489">
        <ele>1043.4</ele>
        <time>2016-07-31T09:48:28Z</time>
      </trkpt>
      <trkpt lat="42.43236" lon="0.04485">
        <ele>1043.3</ele>
        <time>2016-07-31T09:48:30Z</time>
      </trkpt>
      <trkpt lat="42.4324" lon="0.04484">
        <ele>1042.4</ele>
        <time>2016-07-31T09:48:32Z</time>
      </trkpt>
      <trkpt lat="42.43245" lon="0.04486">
        <ele>1041.6</ele>
        <time>2016-07-31T09:48:34Z</time>
      </trkpt>
      <trkpt lat="42.43248" lon="0.04488">
        <ele>1040.9</ele>
        <time>2016-07-31T09:48:36Z</time>
      </trkpt>
      <trkpt lat="42.43253" lon="0.04491">
        <ele>1040.1</ele>
        <time>2016-07-31T09:48:38Z</time>
      </trkpt>
      <trkpt lat="42.43256" lon="0.04495">
        <ele>1039.6</ele>
        <time>2016-07-31T09:48:40Z</time>
      </trkpt>
      <trkpt lat="42.43259" lon="0.04496">
        <ele>1039.1</ele>
        <time>2016-07-31T09:48:42Z</time>
      </trkpt>
      <trkpt lat="42.43265" lon="0.04502">
        <ele>1038.4</ele>
        <time>2016-07-31T09:54:17Z</time>
      </trkpt>
      <trkpt lat="42.43269" lon="0.04506">
        <ele>1038.1</ele>
        <time>2016-07-31T09:54:19Z</time>
      </trkpt>
      <trkpt lat="42.43272" lon="0.0451">
        <ele>1037.9</ele>
        <time>2016-07-31T09:54:21Z</time>
      </trkpt>
      <trkpt lat="42.43274" lon="0.04514">
        <ele>1037.9</ele>
        <time>2016-07-31T09:54:23Z</time>
      </trkpt>
      <trkpt lat="42.43275" lon="0.04519">
        <ele>1038.2</ele>
        <time>2016-07-31T09:54:30Z</time>
      </trkpt>
      <trkpt lat="42.43277" lon="0.04524">
        <ele>1038.4</ele>
        <time>2016-07-31T09:54:32Z</time>
      </trkpt>
      <trkpt lat="42.43279" lon="0.04528">
        <ele>1038.6</ele>
        <time>2016-07-31T09:54:34Z</time>
      </trkpt>
      <trkpt lat="42.4328" lon="0.04532">
        <ele>1038.8</ele>
        <time>2016-07-31T09:54:36Z</time>
      </trkpt>
      <trkpt lat="42.43283" lon="0.04535">
        <ele>1038.9</ele>
        <time>2016-07-31T09:54:38Z</time>
      </trkpt>
      <trkpt lat="42.43285" lon="0.04537">
        <ele>1038.9</ele>
        <time>2016-07-31T09:54:39Z</time>
      </trkpt>
      <trkpt lat="42.43288" lon="0.04539">
        <ele>1038.9</ele>
        <time>2016-07-31T09:54:40Z</time>
      </trkpt>
      <trkpt lat="42.43291" lon="0.04542">
        <ele>1039</ele>
        <time>2016-07-31T09:54:41Z</time>
      </trkpt>
      <trkpt lat="42.43294" lon="0.04544">
        <ele>1038.1</ele>
        <time>2016-07-31T09:54:42Z</time>
      </trkpt>
      <trkpt lat="42.43297" lon="0.04546">
        <ele>1037.1</ele>
        <time>2016-07-31T09:54:43Z</time>
      </trkpt>
      <trkpt lat="42.43299" lon="0.04548">
        <ele>1036.3</ele>
        <time>2016-07-31T09:54:44Z</time>
      </trkpt>
      <trkpt lat="42.43303" lon="0.04553">
        <ele>1034.7</ele>
        <time>2016-07-31T09:54:46Z</time>
      </trkpt>
      <trkpt lat="42.43306" lon="0.04555">
        <ele>1033.9</ele>
        <time>2016-07-31T09:54:47Z</time>
      </trkpt>
      <trkpt lat="42.43308" lon="0.04557">
        <ele>1033.1</ele>
        <time>2016-07-31T09:54:48Z</time>
      </trkpt>
      <trkpt lat="42.43311" lon="0.04559">
        <ele>1032.3</ele>
        <time>2016-07-31T09:54:49Z</time>
      </trkpt>
      <trkpt lat="42.43314" lon="0.04562">
        <ele>1031.4</ele>
        <time>2016-07-31T09:54:50Z</time>
      </trkpt>
      <trkpt lat="42.43317" lon="0.04566">
        <ele>1030.6</ele>
        <time>2016-07-31T09:54:51Z</time>
      </trkpt>
      <trkpt lat="42.43319" lon="0.04571">
        <ele>1029.9</ele>
        <time>2016-07-31T09:54:52Z</time>
      </trkpt>
      <trkpt lat="42.43322" lon="0.04574">
        <ele>1029.3</ele>
        <time>2016-07-31T09:54:53Z</time>
      </trkpt>
      <trkpt lat="42.43323" lon="0.04577">
        <ele>1028.9</ele>
        <time>2016-07-31T09:54:54Z</time>
      </trkpt>
      <trkpt lat="42.43328" lon="0.04581">
        <ele>1028.1</ele>
        <time>2016-07-31T09:54:56Z</time>
      </trkpt>
      <trkpt lat="42.43332" lon="0.04585">
        <ele>1027.5</ele>
        <time>2016-07-31T09:54:58Z</time>
      </trkpt>
      <trkpt lat="42.43334" lon="0.0459">
        <ele>1027.1</ele>
        <time>2016-07-31T09:55:00Z</time>
      </trkpt>
      <trkpt lat="42.43336" lon="0.04593">
        <ele>1026.9</ele>
        <time>2016-07-31T09:55:01Z</time>
      </trkpt>
      <trkpt lat="42.43339" lon="0.04596">
        <ele>1026.6</ele>
        <time>2016-07-31T09:55:02Z</time>
      </trkpt>
      <trkpt lat="42.43342" lon="0.04598">
        <ele>1026.4</ele>
        <time>2016-07-31T09:55:03Z</time>
      </trkpt>
      <trkpt lat="42.43345" lon="0.04601">
        <ele>1026.2</ele>
        <time>2016-07-31T09:55:04Z</time>
      </trkpt>
      <trkpt lat="42.43348" lon="0.04604">
        <ele>1026.1</ele>
        <time>2016-07-31T09:55:05Z</time>
      </trkpt>
      <trkpt lat="42.4335" lon="0.04607">
        <ele>1026.1</ele>
        <time>2016-07-31T09:55:06Z</time>
      </trkpt>
      <trkpt lat="42.43352" lon="0.04611">
        <ele>1026.2</ele>
        <time>2016-07-31T09:55:08Z</time>
      </trkpt>
      <trkpt lat="42.43355" lon="0.04615">
        <ele>1026.3</ele>
        <time>2016-07-31T09:55:10Z</time>
      </trkpt>
      <trkpt lat="42.4336" lon="0.04618">
        <ele>1026.4</ele>
        <time>2016-07-31T09:55:12Z</time>
      </trkpt>
      <trkpt lat="42.43362" lon="0.0462">
        <ele>1026.5</ele>
        <time>2016-07-31T09:55:13Z</time>
      </trkpt>
      <trkpt lat="42.43365" lon="0.04622">
        <ele>1026.7</ele>
        <time>2016-07-31T09:55:14Z</time>
      </trkpt>
      <trkpt lat="42.43368" lon="0.04624">
        <ele>1026.9</ele>
        <time>2016-07-31T09:55:15Z</time>
      </trkpt>
      <trkpt lat="42.4337" lon="0.04627">
        <ele>1026.8</ele>
        <time>2016-07-31T09:55:16Z</time>
      </trkpt>
      <trkpt lat="42.43371" lon="0.04631">
        <ele>1026.6</ele>
        <time>2016-07-31T09:55:17Z</time>
      </trkpt>
      <trkpt lat="42.43372" lon="0.04635">
        <ele>1026.4</ele>
        <time>2016-07-31T09:55:18Z</time>
      </trkpt>
      <trkpt lat="42.43373" lon="0.04639">
        <ele>1026.1</ele>
        <time>2016-07-31T09:55:19Z</time>
      </trkpt>
      <trkpt lat="42.43375" lon="0.04644">
        <ele>1025.7</ele>
        <time>2016-07-31T09:55:20Z</time>
      </trkpt>
      <trkpt lat="42.43379" lon="0.0465">
        <ele>1024.6</ele>
        <time>2016-07-31T09:55:21Z</time>
      </trkpt>
      <trkpt lat="42.43383" lon="0.04655">
        <ele>1023.4</ele>
        <time>2016-07-31T09:55:22Z</time>
      </trkpt>
      <trkpt lat="42.43387" lon="0.0466">
        <ele>1022.4</ele>
        <time>2016-07-31T09:55:23Z</time>
      </trkpt>
      <trkpt lat="42.4339" lon="0.04664">
        <ele>1021.7</ele>
        <time>2016-07-31T09:55:24Z</time>
      </trkpt>
      <trkpt lat="42.43391" lon="0.04668">
        <ele>1021.4</ele>
        <time>2016-07-31T09:55:25Z</time>
      </trkpt>
      <trkpt lat="42.43393" lon="0.04671">
        <ele>1021</ele>
        <time>2016-07-31T09:55:29Z</time>
      </trkpt>
      <trkpt lat="42.43396" lon="0.04674">
        <ele>1020.5</ele>
        <time>2016-07-31T09:55:32Z</time>
      </trkpt>
      <trkpt lat="42.43401" lon="0.04677">
        <ele>1019.8</ele>
        <time>2016-07-31T09:55:34Z</time>
      </trkpt>
      <trkpt lat="42.43403" lon="0.04679">
        <ele>1019.5</ele>
        <time>2016-07-31T09:55:35Z</time>
      </trkpt>
      <trkpt lat="42.43406" lon="0.04681">
        <ele>1019.1</ele>
        <time>2016-07-31T09:55:36Z</time>
      </trkpt>
      <trkpt lat="42.43409" lon="0.04683">
        <ele>1018.7</ele>
        <time>2016-07-31T09:55:37Z</time>
      </trkpt>
      <trkpt lat="42.43412" lon="0.04685">
        <ele>1018.4</ele>
        <time>2016-07-31T09:55:38Z</time>
      </trkpt>
      <trkpt lat="42.43415" lon="0.04686">
        <ele>1018.1</ele>
        <time>2016-07-31T09:55:39Z</time>
      </trkpt>
      <trkpt lat="42.43418" lon="0.04688">
        <ele>1017.9</ele>
        <time>2016-07-31T09:55:40Z</time>
      </trkpt>
      <trkpt lat="42.4342" lon="0.0469">
        <ele>1017.7</ele>
        <time>2016-07-31T09:55:41Z</time>
      </trkpt>
      <trkpt lat="42.43423" lon="0.04693">
        <ele>1017.7</ele>
        <time>2016-07-31T09:55:42Z</time>
      </trkpt>
      <trkpt lat="42.43426" lon="0.04695">
        <ele>1017.6</ele>
        <time>2016-07-31T09:55:43Z</time>
      </trkpt>
      <trkpt lat="42.43429" lon="0.04697">
        <ele>1017.5</ele>
        <time>2016-07-31T09:55:44Z</time>
      </trkpt>
      <trkpt lat="42.43433" lon="0.04699">
        <ele>1017.4</ele>
        <time>2016-07-31T09:55:45Z</time>
      </trkpt>
      <trkpt lat="42.43436" lon="0.047">
        <ele>1017.2</ele>
        <time>2016-07-31T09:55:46Z</time>
      </trkpt>
      <trkpt lat="42.43439" lon="0.04701">
        <ele>1017</ele>
        <time>2016-07-31T09:55:47Z</time>
      </trkpt>
      <trkpt lat="42.43443" lon="0.04703">
        <ele>1017</ele>
        <time>2016-07-31T09:55:49Z</time>
      </trkpt>
      <trkpt lat="42.43447" lon="0.04706">
        <ele>1017.2</ele>
        <time>2016-07-31T09:55:51Z</time>
      </trkpt>
      <trkpt lat="42.4345" lon="0.04707">
        <ele>1017.3</ele>
        <time>2016-07-31T09:55:53Z</time>
      </trkpt>
      <trkpt lat="42.43454" lon="0.04709">
        <ele>1017.2</ele>
        <time>2016-07-31T09:55:55Z</time>
      </trkpt>
      <trkpt lat="42.43457" lon="0.04714">
        <ele>1016.9</ele>
        <time>2016-07-31T09:55:57Z</time>
      </trkpt>
      <trkpt lat="42.43458" lon="0.04718">
        <ele>1016.6</ele>
        <time>2016-07-31T09:55:58Z</time>
      </trkpt>
      <trkpt lat="42.4346" lon="0.04723">
        <ele>1016</ele>
        <time>2016-07-31T09:55:59Z</time>
      </trkpt>
      <trkpt lat="42.43461" lon="0.04729">
        <ele>1015.3</ele>
        <time>2016-07-31T09:56:00Z</time>
      </trkpt>
      <trkpt lat="42.43462" lon="0.04735">
        <ele>1014.6</ele>
        <time>2016-07-31T09:56:01Z</time>
      </trkpt>
      <trkpt lat="42.43465" lon="0.04741">
        <ele>1013.7</ele>
        <time>2016-07-31T09:56:02Z</time>
      </trkpt>
      <trkpt lat="42.43468" lon="0.04748">
        <ele>1012.7</ele>
        <time>2016-07-31T09:56:03Z</time>
      </trkpt>
      <trkpt lat="42.43471" lon="0.04754">
        <ele>1011.6</ele>
        <time>2016-07-31T09:56:04Z</time>
      </trkpt>
      <trkpt lat="42.43475" lon="0.0476">
        <ele>1010.4</ele>
        <time>2016-07-31T09:56:05Z</time>
      </trkpt>
      <trkpt lat="42.4348" lon="0.04765">
        <ele>1009.4</ele>
        <time>2016-07-31T09:56:06Z</time>
      </trkpt>
      <trkpt lat="42.43484" lon="0.04771">
        <ele>1008.6</ele>
        <time>2016-07-31T09:56:07Z</time>
      </trkpt>
      <trkpt lat="42.43487" lon="0.04777">
        <ele>1008</ele>
        <time>2016-07-31T09:56:08Z</time>
      </trkpt>
      <trkpt lat="42.4349" lon="0.04784">
        <ele>1007.7</ele>
        <time>2016-07-31T09:56:09Z</time>
      </trkpt>
      <trkpt lat="42.43494" lon="0.0479">
        <ele>1007.5</ele>
        <time>2016-07-31T09:56:10Z</time>
      </trkpt>
      <trkpt lat="42.43497" lon="0.04794">
        <ele>1006.9</ele>
        <time>2016-07-31T09:56:12Z</time>
      </trkpt>
      <trkpt lat="42.43499" lon="0.04797">
        <ele>1006.3</ele>
        <time>2016-07-31T09:56:14Z</time>
      </trkpt>
      <trkpt lat="42.43502" lon="0.04799">
        <ele>1005.6</ele>
        <time>2016-07-31T09:56:16Z</time>
      </trkpt>
      <trkpt lat="42.43504" lon="0.04802">
        <ele>1005</ele>
        <time>2016-07-31T09:56:17Z</time>
      </trkpt>
      <trkpt lat="42.43508" lon="0.04805">
        <ele>1004.2</ele>
        <time>2016-07-31T09:56:19Z</time>
      </trkpt>
      <trkpt lat="42.4351" lon="0.04809">
        <ele>1003.7</ele>
        <time>2016-07-31T09:56:20Z</time>
      </trkpt>
      <trkpt lat="42.43512" lon="0.04812">
        <ele>1003.3</ele>
        <time>2016-07-31T09:56:21Z</time>
      </trkpt>
      <trkpt lat="42.43513" lon="0.04815">
        <ele>1003</ele>
        <time>2016-07-31T09:56:22Z</time>
      </trkpt>
      <trkpt lat="42.43515" lon="0.04818">
        <ele>1002.6</ele>
        <time>2016-07-31T09:56:23Z</time>
      </trkpt>
      <trkpt lat="42.43518" lon="0.04821">
        <ele>1002.2</ele>
        <time>2016-07-31T09:56:24Z</time>
      </trkpt>
      <trkpt lat="42.43521" lon="0.04825">
        <ele>1001.9</ele>
        <time>2016-07-31T09:56:25Z</time>
      </trkpt>
      <trkpt lat="42.43524" lon="0.04829">
        <ele>1001.6</ele>
        <time>2016-07-31T09:56:26Z</time>
      </trkpt>
      <trkpt lat="42.43527" lon="0.04833">
        <ele>1001.3</ele>
        <time>2016-07-31T09:56:27Z</time>
      </trkpt>
      <trkpt lat="42.4353" lon="0.04836">
        <ele>1001.1</ele>
        <time>2016-07-31T09:56:28Z</time>
      </trkpt>
      <trkpt lat="42.43533" lon="0.04839">
        <ele>1001</ele>
        <time>2016-07-31T09:56:29Z</time>
      </trkpt>
      <trkpt lat="42.43535" lon="0.04842">
        <ele>1001</ele>
        <time>2016-07-31T09:56:30Z</time>
      </trkpt>
      <trkpt lat="42.43538" lon="0.04845">
        <ele>1001</ele>
        <time>2016-07-31T09:56:31Z</time>
      </trkpt>
      <trkpt lat="42.4354" lon="0.04849">
        <ele>1001.1</ele>
        <time>2016-07-31T09:56:32Z</time>
      </trkpt>
      <trkpt lat="42.43542" lon="0.04851">
        <ele>1001.1</ele>
        <time>2016-07-31T09:56:33Z</time>
      </trkpt>
      <trkpt lat="42.43545" lon="0.04857">
        <ele>1000.2</ele>
        <time>2016-07-31T09:56:35Z</time>
      </trkpt>
      <trkpt lat="42.43548" lon="0.0486">
        <ele>999.4</ele>
        <time>2016-07-31T09:56:36Z</time>
      </trkpt>
      <trkpt lat="42.43551" lon="0.04862">
        <ele>998.4</ele>
        <time>2016-07-31T09:56:37Z</time>
      </trkpt>
      <trkpt lat="42.43555" lon="0.04863">
        <ele>997.3</ele>
        <time>2016-07-31T09:56:38Z</time>
      </trkpt>
      <trkpt lat="42.43558" lon="0.04865">
        <ele>996.2</ele>
        <time>2016-07-31T09:56:39Z</time>
      </trkpt>
      <trkpt lat="42.43561" lon="0.04866">
        <ele>995.3</ele>
        <time>2016-07-31T09:56:40Z</time>
      </trkpt>
      <trkpt lat="42.43564" lon="0.04867">
        <ele>994.5</ele>
        <time>2016-07-31T09:56:41Z</time>
      </trkpt>
      <trkpt lat="42.43567" lon="0.04871">
        <ele>993.8</ele>
        <time>2016-07-31T09:56:43Z</time>
      </trkpt>
      <trkpt lat="42.43569" lon="0.04875">
        <ele>993.7</ele>
        <time>2016-07-31T09:56:45Z</time>
      </trkpt>
      <trkpt lat="42.43572" lon="0.04878">
        <ele>992.5</ele>
        <time>2016-07-31T09:56:48Z</time>
      </trkpt>
      <trkpt lat="42.43576" lon="0.04881">
        <ele>991.3</ele>
        <time>2016-07-31T09:56:50Z</time>
      </trkpt>
      <trkpt lat="42.43579" lon="0.04884">
        <ele>990.2</ele>
        <time>2016-07-31T09:56:52Z</time>
      </trkpt>
      <trkpt lat="42.4358" lon="0.04888">
        <ele>989.6</ele>
        <time>2016-07-31T09:56:53Z</time>
      </trkpt>
      <trkpt lat="42.43581" lon="0.04891">
        <ele>989.1</ele>
        <time>2016-07-31T09:56:54Z</time>
      </trkpt>
      <trkpt lat="42.43581" lon="0.04898">
        <ele>988.6</ele>
        <time>2016-07-31T09:56:56Z</time>
      </trkpt>
      <trkpt lat="42.43583" lon="0.04903">
        <ele>987.8</ele>
        <time>2016-07-31T09:56:58Z</time>
      </trkpt>
      <trkpt lat="42.43586" lon="0.04905">
        <ele>987.3</ele>
        <time>2016-07-31T09:56:59Z</time>
      </trkpt>
      <trkpt lat="42.43591" lon="0.04907">
        <ele>986.3</ele>
        <time>2016-07-31T09:57:01Z</time>
      </trkpt>
      <trkpt lat="42.43594" lon="0.04908">
        <ele>985.6</ele>
        <time>2016-07-31T09:57:03Z</time>
      </trkpt>
      <trkpt lat="42.43597" lon="0.04911">
        <ele>985</ele>
        <time>2016-07-31T09:57:05Z</time>
      </trkpt>
      <trkpt lat="42.43601" lon="0.04915">
        <ele>984.4</ele>
        <time>2016-07-31T09:57:07Z</time>
      </trkpt>
      <trkpt lat="42.43604" lon="0.04918">
        <ele>984</ele>
        <time>2016-07-31T09:57:09Z</time>
      </trkpt>
      <trkpt lat="42.43606" lon="0.04922">
        <ele>983.9</ele>
        <time>2016-07-31T09:57:14Z</time>
      </trkpt>
      <trkpt lat="42.43609" lon="0.04924">
        <ele>983.6</ele>
        <time>2016-07-31T09:57:21Z</time>
      </trkpt>
      <trkpt lat="42.43611" lon="0.04927">
        <ele>983.4</ele>
        <time>2016-07-31T09:57:23Z</time>
      </trkpt>
      <trkpt lat="42.43614" lon="0.04932">
        <ele>983.4</ele>
        <time>2016-07-31T09:57:25Z</time>
      </trkpt>
      <trkpt lat="42.43618" lon="0.04935">
        <ele>983.3</ele>
        <time>2016-07-31T09:57:27Z</time>
      </trkpt>
      <trkpt lat="42.43622" lon="0.04937">
        <ele>983.2</ele>
        <time>2016-07-31T09:57:29Z</time>
      </trkpt>
      <trkpt lat="42.43625" lon="0.0494">
        <ele>983.3</ele>
        <time>2016-07-31T09:57:31Z</time>
      </trkpt>
      <trkpt lat="42.43627" lon="0.04944">
        <ele>983</ele>
        <time>2016-07-31T09:57:33Z</time>
      </trkpt>
      <trkpt lat="42.43629" lon="0.04948">
        <ele>982.7</ele>
        <time>2016-07-31T09:57:35Z</time>
      </trkpt>
      <trkpt lat="42.43631" lon="0.04952">
        <ele>982.4</ele>
        <time>2016-07-31T09:57:37Z</time>
      </trkpt>
      <trkpt lat="42.43634" lon="0.04955">
        <ele>981.8</ele>
        <time>2016-07-31T09:57:39Z</time>
      </trkpt>
      <trkpt lat="42.43637" lon="0.04957">
        <ele>981.1</ele>
        <time>2016-07-31T09:57:41Z</time>
      </trkpt>
      <trkpt lat="42.43641" lon="0.04959">
        <ele>980.2</ele>
        <time>2016-07-31T09:57:43Z</time>
      </trkpt>
      <trkpt lat="42.43644" lon="0.04961">
        <ele>979.1</ele>
        <time>2016-07-31T09:57:45Z</time>
      </trkpt>
      <trkpt lat="42.43647" lon="0.04964">
        <ele>977.9</ele>
        <time>2016-07-31T09:57:47Z</time>
      </trkpt>
      <trkpt lat="42.4365" lon="0.04969">
        <ele>976.8</ele>
        <time>2016-07-31T09:57:49Z</time>
      </trkpt>
      <trkpt lat="42.43652" lon="0.04971">
        <ele>976.1</ele>
        <time>2016-07-31T09:57:50Z</time>
      </trkpt>
      <trkpt lat="42.43654" lon="0.04974">
        <ele>975.2</ele>
        <time>2016-07-31T09:57:51Z</time>
      </trkpt>
      <trkpt lat="42.43658" lon="0.04976">
        <ele>974.3</ele>
        <time>2016-07-31T09:57:52Z</time>
      </trkpt>
      <trkpt lat="42.43661" lon="0.04979">
        <ele>973.4</ele>
        <time>2016-07-31T09:57:53Z</time>
      </trkpt>
      <trkpt lat="42.43664" lon="0.04982">
        <ele>972.8</ele>
        <time>2016-07-31T09:57:54Z</time>
      </trkpt>
      <trkpt lat="42.43666" lon="0.04984">
        <ele>972.4</ele>
        <time>2016-07-31T09:57:55Z</time>
      </trkpt>
      <trkpt lat="42.43668" lon="0.04987">
        <ele>971.9</ele>
        <time>2016-07-31T09:57:56Z</time>
      </trkpt>
      <trkpt lat="42.43671" lon="0.0499">
        <ele>971.4</ele>
        <time>2016-07-31T09:57:57Z</time>
      </trkpt>
      <trkpt lat="42.43674" lon="0.04992">
        <ele>971</ele>
        <time>2016-07-31T09:57:58Z</time>
      </trkpt>
      <trkpt lat="42.43677" lon="0.04995">
        <ele>970.7</ele>
        <time>2016-07-31T09:57:59Z</time>
      </trkpt>
      <trkpt lat="42.4368" lon="0.04999">
        <ele>970.4</ele>
        <time>2016-07-31T09:58:01Z</time>
      </trkpt>
      <trkpt lat="42.43683" lon="0.05004">
        <ele>970.3</ele>
        <time>2016-07-31T09:58:03Z</time>
      </trkpt>
      <trkpt lat="42.43686" lon="0.05007">
        <ele>970.2</ele>
        <time>2016-07-31T09:58:05Z</time>
      </trkpt>
      <trkpt lat="42.4369" lon="0.0501">
        <ele>970.1</ele>
        <time>2016-07-31T09:58:07Z</time>
      </trkpt>
      <trkpt lat="42.43692" lon="0.05012">
        <ele>970.1</ele>
        <time>2016-07-31T09:58:08Z</time>
      </trkpt>
      <trkpt lat="42.43695" lon="0.05014">
        <ele>970.2</ele>
        <time>2016-07-31T09:58:09Z</time>
      </trkpt>
      <trkpt lat="42.43697" lon="0.05017">
        <ele>970.3</ele>
        <time>2016-07-31T09:58:10Z</time>
      </trkpt>
      <trkpt lat="42.43699" lon="0.05019">
        <ele>970.5</ele>
        <time>2016-07-31T09:58:11Z</time>
      </trkpt>
      <trkpt lat="42.43701" lon="0.05021">
        <ele>970.8</ele>
        <time>2016-07-31T09:58:12Z</time>
      </trkpt>
      <trkpt lat="42.43705" lon="0.05026">
        <ele>971.3</ele>
        <time>2016-07-31T09:58:14Z</time>
      </trkpt>
      <trkpt lat="42.4371" lon="0.05027">
        <ele>971.1</ele>
        <time>2016-07-31T09:58:16Z</time>
      </trkpt>
      <trkpt lat="42.43714" lon="0.05029">
        <ele>970</ele>
        <time>2016-07-31T09:58:18Z</time>
      </trkpt>
      <trkpt lat="42.43717" lon="0.05032">
        <ele>969.2</ele>
        <time>2016-07-31T09:58:20Z</time>
      </trkpt>
      <trkpt lat="42.43721" lon="0.05035">
        <ele>968.7</ele>
        <time>2016-07-31T09:58:22Z</time>
      </trkpt>
      <trkpt lat="42.43724" lon="0.05038">
        <ele>968.3</ele>
        <time>2016-07-31T09:58:24Z</time>
      </trkpt>
      <trkpt lat="42.43727" lon="0.05041">
        <ele>968.2</ele>
        <time>2016-07-31T09:58:26Z</time>
      </trkpt>
      <trkpt lat="42.43728" lon="0.05048">
        <ele>967.1</ele>
        <time>2016-07-31T09:58:28Z</time>
      </trkpt>
      <trkpt lat="42.43729" lon="0.05053">
        <ele>966.3</ele>
        <time>2016-07-31T09:58:30Z</time>
      </trkpt>
      <trkpt lat="42.43731" lon="0.05057">
        <ele>965.6</ele>
        <time>2016-07-31T09:58:32Z</time>
      </trkpt>
      <trkpt lat="42.43734" lon="0.05059">
        <ele>964.6</ele>
        <time>2016-07-31T09:58:34Z</time>
      </trkpt>
      <trkpt lat="42.43737" lon="0.05062">
        <ele>963.5</ele>
        <time>2016-07-31T09:58:36Z</time>
      </trkpt>
      <trkpt lat="42.43742" lon="0.05064">
        <ele>962.2</ele>
        <time>2016-07-31T09:58:38Z</time>
      </trkpt>
      <trkpt lat="42.43747" lon="0.05066">
        <ele>960.9</ele>
        <time>2016-07-31T09:58:40Z</time>
      </trkpt>
      <trkpt lat="42.4375" lon="0.05068">
        <ele>960.2</ele>
        <time>2016-07-31T09:58:41Z</time>
      </trkpt>
      <trkpt lat="42.43753" lon="0.0507">
        <ele>959.3</ele>
        <time>2016-07-31T09:58:42Z</time>
      </trkpt>
      <trkpt lat="42.43757" lon="0.05073">
        <ele>958.4</ele>
        <time>2016-07-31T09:58:43Z</time>
      </trkpt>
      <trkpt lat="42.43761" lon="0.05076">
        <ele>957.5</ele>
        <time>2016-07-31T09:58:44Z</time>
      </trkpt>
      <trkpt lat="42.43764" lon="0.05078">
        <ele>956.9</ele>
        <time>2016-07-31T09:58:45Z</time>
      </trkpt>
      <trkpt lat="42.43767" lon="0.0508">
        <ele>956.3</ele>
        <time>2016-07-31T09:58:46Z</time>
      </trkpt>
      <trkpt lat="42.43771" lon="0.05083">
        <ele>955.7</ele>
        <time>2016-07-31T09:58:47Z</time>
      </trkpt>
      <trkpt lat="42.43774" lon="0.05086">
        <ele>955.2</ele>
        <time>2016-07-31T09:58:48Z</time>
      </trkpt>
      <trkpt lat="42.43777" lon="0.05089">
        <ele>954.9</ele>
        <time>2016-07-31T09:58:49Z</time>
      </trkpt>
      <trkpt lat="42.4378" lon="0.05093">
        <ele>954.7</ele>
        <time>2016-07-31T09:58:50Z</time>
      </trkpt>
      <trkpt lat="42.43782" lon="0.05096">
        <ele>954.5</ele>
        <time>2016-07-31T09:58:51Z</time>
      </trkpt>
      <trkpt lat="42.43786" lon="0.05099">
        <ele>954.3</ele>
        <time>2016-07-31T09:58:52Z</time>
      </trkpt>
      <trkpt lat="42.4379" lon="0.05103">
        <ele>954.1</ele>
        <time>2016-07-31T09:58:53Z</time>
      </trkpt>
      <trkpt lat="42.43793" lon="0.05106">
        <ele>953.6</ele>
        <time>2016-07-31T09:58:54Z</time>
      </trkpt>
      <trkpt lat="42.43797" lon="0.05109">
        <ele>952.9</ele>
        <time>2016-07-31T09:58:55Z</time>
      </trkpt>
      <trkpt lat="42.438" lon="0.05112">
        <ele>952.2</ele>
        <time>2016-07-31T09:58:56Z</time>
      </trkpt>
      <trkpt lat="42.43804" lon="0.05114">
        <ele>951.5</ele>
        <time>2016-07-31T09:58:57Z</time>
      </trkpt>
      <trkpt lat="42.43808" lon="0.05117">
        <ele>950.8</ele>
        <time>2016-07-31T09:58:58Z</time>
      </trkpt>
      <trkpt lat="42.43811" lon="0.05119">
        <ele>950.2</ele>
        <time>2016-07-31T09:58:59Z</time>
      </trkpt>
      <trkpt lat="42.43814" lon="0.0512">
        <ele>949.6</ele>
        <time>2016-07-31T09:59:00Z</time>
      </trkpt>
      <trkpt lat="42.43817" lon="0.05122">
        <ele>949.1</ele>
        <time>2016-07-31T09:59:01Z</time>
      </trkpt>
      <trkpt lat="42.4382" lon="0.05123">
        <ele>948.5</ele>
        <time>2016-07-31T09:59:02Z</time>
      </trkpt>
      <trkpt lat="42.43823" lon="0.05124">
        <ele>947.8</ele>
        <time>2016-07-31T09:59:03Z</time>
      </trkpt>
      <trkpt lat="42.43827" lon="0.05126">
        <ele>947.1</ele>
        <time>2016-07-31T09:59:04Z</time>
      </trkpt>
      <trkpt lat="42.4383" lon="0.05128">
        <ele>946</ele>
        <time>2016-07-31T09:59:05Z</time>
      </trkpt>
      <trkpt lat="42.43833" lon="0.05131">
        <ele>944.9</ele>
        <time>2016-07-31T09:59:06Z</time>
      </trkpt>
      <trkpt lat="42.43836" lon="0.05134">
        <ele>944.1</ele>
        <time>2016-07-31T09:59:07Z</time>
      </trkpt>
      <trkpt lat="42.43838" lon="0.05136">
        <ele>943.3</ele>
        <time>2016-07-31T09:59:08Z</time>
      </trkpt>
      <trkpt lat="42.4384" lon="0.05139">
        <ele>942.7</ele>
        <time>2016-07-31T09:59:09Z</time>
      </trkpt>
      <trkpt lat="42.43842" lon="0.05143">
        <ele>942</ele>
        <time>2016-07-31T09:59:10Z</time>
      </trkpt>
      <trkpt lat="42.43845" lon="0.05147">
        <ele>941.3</ele>
        <time>2016-07-31T09:59:11Z</time>
      </trkpt>
      <trkpt lat="42.43849" lon="0.05151">
        <ele>940.3</ele>
        <time>2016-07-31T09:59:12Z</time>
      </trkpt>
      <trkpt lat="42.43853" lon="0.05154">
        <ele>939.5</ele>
        <time>2016-07-31T09:59:13Z</time>
      </trkpt>
      <trkpt lat="42.43856" lon="0.05156">
        <ele>938.9</ele>
        <time>2016-07-31T09:59:14Z</time>
      </trkpt>
      <trkpt lat="42.43859" lon="0.05156">
        <ele>938.5</ele>
        <time>2016-07-31T09:59:15Z</time>
      </trkpt>
      <trkpt lat="42.43864" lon="0.05159">
        <ele>937.8</ele>
        <time>2016-07-31T09:59:17Z</time>
      </trkpt>
      <trkpt lat="42.43866" lon="0.05162">
        <ele>937.5</ele>
        <time>2016-07-31T09:59:18Z</time>
      </trkpt>
      <trkpt lat="42.43869" lon="0.05165">
        <ele>937.2</ele>
        <time>2016-07-31T09:59:20Z</time>
      </trkpt>
      <trkpt lat="42.43874" lon="0.05169">
        <ele>936.7</ele>
        <time>2016-07-31T10:00:14Z</time>
      </trkpt>
      <trkpt lat="42.43876" lon="0.05172">
        <ele>936.4</ele>
        <time>2016-07-31T10:00:16Z</time>
      </trkpt>
      <trkpt lat="42.43878" lon="0.05175">
        <ele>936.1</ele>
        <time>2016-07-31T10:00:18Z</time>
      </trkpt>
      <trkpt lat="42.43879" lon="0.05179">
        <ele>936</ele>
        <time>2016-07-31T10:00:20Z</time>
      </trkpt>
      <trkpt lat="42.4388" lon="0.05184">
        <ele>936</ele>
        <time>2016-07-31T10:00:22Z</time>
      </trkpt>
      <trkpt lat="42.43882" lon="0.05188">
        <ele>936</ele>
        <time>2016-07-31T10:00:23Z</time>
      </trkpt>
      <trkpt lat="42.43883" lon="0.05192">
        <ele>936</ele>
        <time>2016-07-31T10:00:24Z</time>
      </trkpt>
      <trkpt lat="42.43884" lon="0.05195">
        <ele>936</ele>
        <time>2016-07-31T10:00:25Z</time>
      </trkpt>
      <trkpt lat="42.43886" lon="0.05198">
        <ele>936</ele>
        <time>2016-07-31T10:00:26Z</time>
      </trkpt>
      <trkpt lat="42.43888" lon="0.05202">
        <ele>936</ele>
        <time>2016-07-31T10:00:27Z</time>
      </trkpt>
      <trkpt lat="42.43891" lon="0.05206">
        <ele>936.1</ele>
        <time>2016-07-31T10:00:29Z</time>
      </trkpt>
      <trkpt lat="42.43893" lon="0.0521">
        <ele>935.8</ele>
        <time>2016-07-31T10:00:31Z</time>
      </trkpt>
      <trkpt lat="42.43896" lon="0.05213">
        <ele>934.8</ele>
        <time>2016-07-31T10:00:33Z</time>
      </trkpt>
      <trkpt lat="42.43898" lon="0.05216">
        <ele>934.1</ele>
        <time>2016-07-31T10:00:35Z</time>
      </trkpt>
      <trkpt lat="42.43899" lon="0.05219">
        <ele>933.3</ele>
        <time>2016-07-31T10:00:37Z</time>
      </trkpt>
      <trkpt lat="42.43901" lon="0.05225">
        <ele>932.1</ele>
        <time>2016-07-31T10:00:39Z</time>
      </trkpt>
      <trkpt lat="42.43902" lon="0.05229">
        <ele>931.1</ele>
        <time>2016-07-31T10:00:41Z</time>
      </trkpt>
      <trkpt lat="42.43905" lon="0.05235">
        <ele>929.9</ele>
        <time>2016-07-31T10:00:43Z</time>
      </trkpt>
      <trkpt lat="42.43906" lon="0.05239">
        <ele>929.2</ele>
        <time>2016-07-31T10:00:45Z</time>
      </trkpt>
      <trkpt lat="42.43908" lon="0.05242">
        <ele>928.6</ele>
        <time>2016-07-31T10:00:52Z</time>
      </trkpt>
      <trkpt lat="42.43909" lon="0.05246">
        <ele>927.9</ele>
        <time>2016-07-31T10:00:57Z</time>
      </trkpt>
      <trkpt lat="42.43911" lon="0.05249">
        <ele>927.4</ele>
        <time>2016-07-31T10:01:04Z</time>
      </trkpt>
      <trkpt lat="42.43913" lon="0.05253">
        <ele>926.8</ele>
        <time>2016-07-31T10:01:07Z</time>
      </trkpt>
      <trkpt lat="42.43913" lon="0.05257">
        <ele>926.2</ele>
        <time>2016-07-31T10:01:09Z</time>
      </trkpt>
      <trkpt lat="42.43914" lon="0.05261">
        <ele>925.5</ele>
        <time>2016-07-31T10:01:11Z</time>
      </trkpt>
      <trkpt lat="42.43914" lon="0.05264">
        <ele>925</ele>
        <time>2016-07-31T10:01:13Z</time>
      </trkpt>
      <trkpt lat="42.43915" lon="0.05268">
        <ele>924.4</ele>
        <time>2016-07-31T10:01:16Z</time>
      </trkpt>
      <trkpt lat="42.43917" lon="0.05272">
        <ele>923.9</ele>
        <time>2016-07-31T10:01:19Z</time>
      </trkpt>
      <trkpt lat="42.43919" lon="0.05275">
        <ele>923.7</ele>
        <time>2016-07-31T10:01:26Z</time>
      </trkpt>
      <trkpt lat="42.43922" lon="0.05277">
        <ele>923.6</ele>
        <time>2016-07-31T10:01:29Z</time>
      </trkpt>
      <trkpt lat="42.43925" lon="0.05281">
        <ele>923.4</ele>
        <time>2016-07-31T10:01:31Z</time>
      </trkpt>
      <trkpt lat="42.43927" lon="0.05284">
        <ele>923.1</ele>
        <time>2016-07-31T10:01:33Z</time>
      </trkpt>
      <trkpt lat="42.43928" lon="0.05288">
        <ele>922.9</ele>
        <time>2016-07-31T10:01:35Z</time>
      </trkpt>
      <trkpt lat="42.4393" lon="0.05292">
        <ele>922.6</ele>
        <time>2016-07-31T10:01:37Z</time>
      </trkpt>
      <trkpt lat="42.43933" lon="0.05296">
        <ele>921.6</ele>
        <time>2016-07-31T10:01:39Z</time>
      </trkpt>
      <trkpt lat="42.43935" lon="0.05299">
        <ele>920.9</ele>
        <time>2016-07-31T10:01:41Z</time>
      </trkpt>
      <trkpt lat="42.43938" lon="0.05304">
        <ele>919.9</ele>
        <time>2016-07-31T10:01:43Z</time>
      </trkpt>
      <trkpt lat="42.4394" lon="0.05309">
        <ele>918.5</ele>
        <time>2016-07-31T10:01:45Z</time>
      </trkpt>
      <trkpt lat="42.43942" lon="0.05314">
        <ele>917.3</ele>
        <time>2016-07-31T10:01:47Z</time>
      </trkpt>
      <trkpt lat="42.43943" lon="0.05318">
        <ele>916.4</ele>
        <time>2016-07-31T10:01:49Z</time>
      </trkpt>
      <trkpt lat="42.43944" lon="0.05322">
        <ele>915.4</ele>
        <time>2016-07-31T10:01:53Z</time>
      </trkpt>
      <trkpt lat="42.43946" lon="0.05325">
        <ele>914.5</ele>
        <time>2016-07-31T10:02:00Z</time>
      </trkpt>
      <trkpt lat="42.43947" lon="0.05329">
        <ele>913.5</ele>
        <time>2016-07-31T10:02:09Z</time>
      </trkpt>
      <trkpt lat="42.43949" lon="0.05332">
        <ele>912.8</ele>
        <time>2016-07-31T10:02:13Z</time>
      </trkpt>
      <trkpt lat="42.4395" lon="0.05336">
        <ele>911.9</ele>
        <time>2016-07-31T10:02:16Z</time>
      </trkpt>
      <trkpt lat="42.43951" lon="0.0534">
        <ele>910.8</ele>
        <time>2016-07-31T10:02:19Z</time>
      </trkpt>
      <trkpt lat="42.43953" lon="0.05343">
        <ele>910.1</ele>
        <time>2016-07-31T10:02:23Z</time>
      </trkpt>
      <trkpt lat="42.43955" lon="0.05345">
        <ele>909.6</ele>
        <time>2016-07-31T10:02:34Z</time>
      </trkpt>
      <trkpt lat="42.43958" lon="0.05353">
        <ele>907.6</ele>
        <time>2016-07-31T10:02:52Z</time>
      </trkpt>
      <trkpt lat="42.4396" lon="0.05355">
        <ele>907.2</ele>
        <time>2016-07-31T10:03:06Z</time>
      </trkpt>
      <trkpt lat="42.43962" lon="0.05359">
        <ele>906.1</ele>
        <time>2016-07-31T10:03:10Z</time>
      </trkpt>
      <trkpt lat="42.43964" lon="0.05363">
        <ele>905.2</ele>
        <time>2016-07-31T10:03:12Z</time>
      </trkpt>
      <trkpt lat="42.43966" lon="0.05368">
        <ele>903.8</ele>
        <time>2016-07-31T10:03:14Z</time>
      </trkpt>
      <trkpt lat="42.43968" lon="0.05373">
        <ele>902.6</ele>
        <time>2016-07-31T10:03:16Z</time>
      </trkpt>
      <trkpt lat="42.4397" lon="0.05378">
        <ele>901.4</ele>
        <time>2016-07-31T10:03:18Z</time>
      </trkpt>
      <trkpt lat="42.43972" lon="0.05382">
        <ele>900.2</ele>
        <time>2016-07-31T10:03:20Z</time>
      </trkpt>
      <trkpt lat="42.43974" lon="0.05387">
        <ele>898.8</ele>
        <time>2016-07-31T10:03:22Z</time>
      </trkpt>
      <trkpt lat="42.43975" lon="0.05391">
        <ele>897.8</ele>
        <time>2016-07-31T10:03:24Z</time>
      </trkpt>
      <trkpt lat="42.43978" lon="0.05395">
        <ele>896.8</ele>
        <time>2016-07-31T10:03:26Z</time>
      </trkpt>
      <trkpt lat="42.4398" lon="0.05399">
        <ele>895.8</ele>
        <time>2016-07-31T10:03:28Z</time>
      </trkpt>
      <trkpt lat="42.43983" lon="0.05403">
        <ele>895</ele>
        <time>2016-07-31T10:03:30Z</time>
      </trkpt>
      <trkpt lat="42.43985" lon="0.05407">
        <ele>894</ele>
        <time>2016-07-31T10:03:32Z</time>
      </trkpt>
      <trkpt lat="42.43988" lon="0.05411">
        <ele>892.8</ele>
        <time>2016-07-31T10:03:34Z</time>
      </trkpt>
      <trkpt lat="42.4399" lon="0.05416">
        <ele>891.7</ele>
        <time>2016-07-31T10:03:36Z</time>
      </trkpt>
      <trkpt lat="42.43992" lon="0.05419">
        <ele>891</ele>
        <time>2016-07-31T10:03:38Z</time>
      </trkpt>
      <trkpt lat="42.43994" lon="0.05421">
        <ele>890.3</ele>
        <time>2016-07-31T10:03:40Z</time>
      </trkpt>
      <trkpt lat="42.43995" lon="0.05425">
        <ele>889.4</ele>
        <time>2016-07-31T10:03:42Z</time>
      </trkpt>
      <trkpt lat="42.43996" lon="0.05428">
        <ele>888.4</ele>
        <time>2016-07-31T10:03:44Z</time>
      </trkpt>
      <trkpt lat="42.43998" lon="0.05431">
        <ele>887.7</ele>
        <time>2016-07-31T10:03:56Z</time>
      </trkpt>
      <trkpt lat="42.43998" lon="0.05436">
        <ele>886.4</ele>
        <time>2016-07-31T10:04:07Z</time>
      </trkpt>
      <trkpt lat="42.44" lon="0.0544">
        <ele>885.2</ele>
        <time>2016-07-31T10:04:15Z</time>
      </trkpt>
      <trkpt lat="42.44001" lon="0.05443">
        <ele>884.3</ele>
        <time>2016-07-31T10:04:21Z</time>
      </trkpt>
      <trkpt lat="42.44002" lon="0.05447">
        <ele>883.3</ele>
        <time>2016-07-31T10:04:27Z</time>
      </trkpt>
      <trkpt lat="42.44004" lon="0.0545">
        <ele>882.7</ele>
        <time>2016-07-31T10:04:33Z</time>
      </trkpt>
      <trkpt lat="42.44005" lon="0.05453">
        <ele>881.8</ele>
        <time>2016-07-31T10:04:37Z</time>
      </trkpt>
      <trkpt lat="42.44006" lon="0.05457">
        <ele>880.7</ele>
        <time>2016-07-31T10:04:43Z</time>
      </trkpt>
      <trkpt lat="42.44009" lon="0.05459">
        <ele>880.1</ele>
        <time>2016-07-31T10:04:48Z</time>
      </trkpt>
      <trkpt lat="42.4401" lon="0.05463">
        <ele>879.2</ele>
        <time>2016-07-31T10:04:55Z</time>
      </trkpt>
      <trkpt lat="42.44012" lon="0.05466">
        <ele>878.5</ele>
        <time>2016-07-31T10:05:02Z</time>
      </trkpt>
      <trkpt lat="42.44014" lon="0.05469">
        <ele>877.8</ele>
        <time>2016-07-31T10:05:05Z</time>
      </trkpt>
      <trkpt lat="42.44015" lon="0.05473">
        <ele>876.6</ele>
        <time>2016-07-31T10:05:09Z</time>
      </trkpt>
      <trkpt lat="42.44017" lon="0.05476">
        <ele>875.7</ele>
        <time>2016-07-31T10:05:15Z</time>
      </trkpt>
      <trkpt lat="42.44017" lon="0.0548">
        <ele>874.5</ele>
        <time>2016-07-31T10:05:19Z</time>
      </trkpt>
      <trkpt lat="42.44018" lon="0.05484">
        <ele>873.4</ele>
        <time>2016-07-31T10:05:23Z</time>
      </trkpt>
      <trkpt lat="42.44019" lon="0.05487">
        <ele>872.4</ele>
        <time>2016-07-31T10:05:27Z</time>
      </trkpt>
      <trkpt lat="42.44022" lon="0.05491">
        <ele>871.6</ele>
        <time>2016-07-31T10:05:31Z</time>
      </trkpt>
      <trkpt lat="42.44024" lon="0.05494">
        <ele>870.8</ele>
        <time>2016-07-31T10:05:34Z</time>
      </trkpt>
      <trkpt lat="42.44026" lon="0.05496">
        <ele>870.2</ele>
        <time>2016-07-31T10:05:37Z</time>
      </trkpt>
      <trkpt lat="42.44028" lon="0.05501">
        <ele>869</ele>
        <time>2016-07-31T10:05:39Z</time>
      </trkpt>
      <trkpt lat="42.44029" lon="0.05505">
        <ele>867.5</ele>
        <time>2016-07-31T10:05:41Z</time>
      </trkpt>
      <trkpt lat="42.4403" lon="0.05509">
        <ele>866.5</ele>
        <time>2016-07-31T10:05:43Z</time>
      </trkpt>
      <trkpt lat="42.44032" lon="0.05513">
        <ele>865.6</ele>
        <time>2016-07-31T10:05:45Z</time>
      </trkpt>
      <trkpt lat="42.44034" lon="0.05516">
        <ele>864.7</ele>
        <time>2016-07-31T10:05:47Z</time>
      </trkpt>
      <trkpt lat="42.44037" lon="0.0552">
        <ele>863.6</ele>
        <time>2016-07-31T10:05:49Z</time>
      </trkpt>
      <trkpt lat="42.44039" lon="0.05524">
        <ele>862.3</ele>
        <time>2016-07-31T10:05:51Z</time>
      </trkpt>
      <trkpt lat="42.44041" lon="0.05529">
        <ele>861</ele>
        <time>2016-07-31T10:05:53Z</time>
      </trkpt>
      <trkpt lat="42.44043" lon="0.05533">
        <ele>860</ele>
        <time>2016-07-31T10:05:55Z</time>
      </trkpt>
      <trkpt lat="42.44044" lon="0.05536">
        <ele>859.1</ele>
        <time>2016-07-31T10:05:57Z</time>
      </trkpt>
      <trkpt lat="42.44046" lon="0.0554">
        <ele>858</ele>
        <time>2016-07-31T10:05:59Z</time>
      </trkpt>
      <trkpt lat="42.44047" lon="0.05544">
        <ele>857.2</ele>
        <time>2016-07-31T10:06:01Z</time>
      </trkpt>
      <trkpt lat="42.4405" lon="0.05547">
        <ele>856.6</ele>
        <time>2016-07-31T10:06:04Z</time>
      </trkpt>
      <trkpt lat="42.44052" lon="0.0555">
        <ele>855.9</ele>
        <time>2016-07-31T10:06:06Z</time>
      </trkpt>
      <trkpt lat="42.44054" lon="0.05554">
        <ele>855</ele>
        <time>2016-07-31T10:06:08Z</time>
      </trkpt>
      <trkpt lat="42.44056" lon="0.05558">
        <ele>854.3</ele>
        <time>2016-07-31T10:06:10Z</time>
      </trkpt>
      <trkpt lat="42.44059" lon="0.05561">
        <ele>853.8</ele>
        <time>2016-07-31T10:06:12Z</time>
      </trkpt>
      <trkpt lat="42.44061" lon="0.05564">
        <ele>853.1</ele>
        <time>2016-07-31T10:06:14Z</time>
      </trkpt>
      <trkpt lat="42.44062" lon="0.05568">
        <ele>852.2</ele>
        <time>2016-07-31T10:06:16Z</time>
      </trkpt>
      <trkpt lat="42.44064" lon="0.05572">
        <ele>851.1</ele>
        <time>2016-07-31T10:06:18Z</time>
      </trkpt>
      <trkpt lat="42.44066" lon="0.05577">
        <ele>850.1</ele>
        <time>2016-07-31T10:06:20Z</time>
      </trkpt>
      <trkpt lat="42.44069" lon="0.05581">
        <ele>849</ele>
        <time>2016-07-31T10:06:22Z</time>
      </trkpt>
      <trkpt lat="42.4407" lon="0.05585">
        <ele>848</ele>
        <time>2016-07-31T10:06:24Z</time>
      </trkpt>
      <trkpt lat="42.44075" lon="0.05591">
        <ele>846.8</ele>
        <time>2016-07-31T10:06:45Z</time>
      </trkpt>
      <trkpt lat="42.44076" lon="0.05594">
        <ele>846</ele>
        <time>2016-07-31T10:06:51Z</time>
      </trkpt>
      <trkpt lat="42.44077" lon="0.05599">
        <ele>844.8</ele>
        <time>2016-07-31T10:06:55Z</time>
      </trkpt>
      <trkpt lat="42.44077" lon="0.05605">
        <ele>843.1</ele>
        <time>2016-07-31T10:06:57Z</time>
      </trkpt>
      <trkpt lat="42.44079" lon="0.05611">
        <ele>841.3</ele>
        <time>2016-07-31T10:06:59Z</time>
      </trkpt>
      <trkpt lat="42.44081" lon="0.05615">
        <ele>840.3</ele>
        <time>2016-07-31T10:07:03Z</time>
      </trkpt>
      <trkpt lat="42.44084" lon="0.05618">
        <ele>839.6</ele>
        <time>2016-07-31T10:07:05Z</time>
      </trkpt>
      <trkpt lat="42.44087" lon="0.05622">
        <ele>838.7</ele>
        <time>2016-07-31T10:07:07Z</time>
      </trkpt>
      <trkpt lat="42.44089" lon="0.05625">
        <ele>838</ele>
        <time>2016-07-31T10:07:09Z</time>
      </trkpt>
      <trkpt lat="42.44091" lon="0.05628">
        <ele>837.2</ele>
        <time>2016-07-31T10:07:11Z</time>
      </trkpt>
      <trkpt lat="42.44094" lon="0.05633">
        <ele>836</ele>
        <time>2016-07-31T10:07:13Z</time>
      </trkpt>
      <trkpt lat="42.44097" lon="0.05638">
        <ele>834.7</ele>
        <time>2016-07-31T10:07:15Z</time>
      </trkpt>
      <trkpt lat="42.44098" lon="0.05642">
        <ele>833.6</ele>
        <time>2016-07-31T10:07:17Z</time>
      </trkpt>
      <trkpt lat="42.44099" lon="0.05647">
        <ele>832.1</ele>
        <time>2016-07-31T10:07:19Z</time>
      </trkpt>
      <trkpt lat="42.441" lon="0.0565">
        <ele>831.1</ele>
        <time>2016-07-31T10:07:21Z</time>
      </trkpt>
      <trkpt lat="42.44102" lon="0.05654">
        <ele>830.1</ele>
        <time>2016-07-31T10:07:23Z</time>
      </trkpt>
      <trkpt lat="42.44104" lon="0.05657">
        <ele>829.4</ele>
        <time>2016-07-31T10:07:24Z</time>
      </trkpt>
      <trkpt lat="42.44106" lon="0.05661">
        <ele>828.5</ele>
        <time>2016-07-31T10:07:25Z</time>
      </trkpt>
      <trkpt lat="42.44109" lon="0.05665">
        <ele>827.6</ele>
        <time>2016-07-31T10:07:26Z</time>
      </trkpt>
      <trkpt lat="42.44111" lon="0.05668">
        <ele>826.8</ele>
        <time>2016-07-31T10:07:27Z</time>
      </trkpt>
      <trkpt lat="42.44115" lon="0.05672">
        <ele>826.1</ele>
        <time>2016-07-31T10:07:29Z</time>
      </trkpt>
      <trkpt lat="42.44118" lon="0.05675">
        <ele>825.5</ele>
        <time>2016-07-31T10:07:31Z</time>
      </trkpt>
      <trkpt lat="42.4412" lon="0.05678">
        <ele>824.5</ele>
        <time>2016-07-31T10:07:33Z</time>
      </trkpt>
      <trkpt lat="42.44123" lon="0.05682">
        <ele>823.6</ele>
        <time>2016-07-31T10:07:36Z</time>
      </trkpt>
      <trkpt lat="42.44123" lon="0.05686">
        <ele>822.4</ele>
        <time>2016-07-31T10:07:47Z</time>
      </trkpt>
      <trkpt lat="42.44125" lon="0.05689">
        <ele>821.8</ele>
        <time>2016-07-31T10:07:51Z</time>
      </trkpt>
      <trkpt lat="42.44126" lon="0.05692">
        <ele>821</ele>
        <time>2016-07-31T10:07:55Z</time>
      </trkpt>
      <trkpt lat="42.44128" lon="0.05696">
        <ele>820.1</ele>
        <time>2016-07-31T10:07:58Z</time>
      </trkpt>
      <trkpt lat="42.44129" lon="0.05701">
        <ele>819</ele>
        <time>2016-07-31T10:08:02Z</time>
      </trkpt>
      <trkpt lat="42.44131" lon="0.05703">
        <ele>818.5</ele>
        <time>2016-07-31T10:08:05Z</time>
      </trkpt>
      <trkpt lat="42.44134" lon="0.05706">
        <ele>818.3</ele>
        <time>2016-07-31T10:08:08Z</time>
      </trkpt>
      <trkpt lat="42.44136" lon="0.05709">
        <ele>817.7</ele>
        <time>2016-07-31T10:08:12Z</time>
      </trkpt>
      <trkpt lat="42.44137" lon="0.05713">
        <ele>816.8</ele>
        <time>2016-07-31T10:08:17Z</time>
      </trkpt>
      <trkpt lat="42.44138" lon="0.05717">
        <ele>815.6</ele>
        <time>2016-07-31T10:08:25Z</time>
      </trkpt>
      <trkpt lat="42.44138" lon="0.05721">
        <ele>814.5</ele>
        <time>2016-07-31T10:08:28Z</time>
      </trkpt>
      <trkpt lat="42.4414" lon="0.05723">
        <ele>814.4</ele>
        <time>2016-07-31T10:08:39Z</time>
      </trkpt>
      <trkpt lat="42.44143" lon="0.05731">
        <ele>812.5</ele>
        <time>2016-07-31T10:09:25Z</time>
      </trkpt>
      <trkpt lat="42.44144" lon="0.05734">
        <ele>811.8</ele>
        <time>2016-07-31T10:09:28Z</time>
      </trkpt>
      <trkpt lat="42.44147" lon="0.05737">
        <ele>811.2</ele>
        <time>2016-07-31T10:09:31Z</time>
      </trkpt>
      <trkpt lat="42.44148" lon="0.05741">
        <ele>810.4</ele>
        <time>2016-07-31T10:09:34Z</time>
      </trkpt>
      <trkpt lat="42.4415" lon="0.05743">
        <ele>809.9</ele>
        <time>2016-07-31T10:09:37Z</time>
      </trkpt>
      <trkpt lat="42.44151" lon="0.05747">
        <ele>809.2</ele>
        <time>2016-07-31T10:09:41Z</time>
      </trkpt>
      <trkpt lat="42.44153" lon="0.05751">
        <ele>808.2</ele>
        <time>2016-07-31T10:09:45Z</time>
      </trkpt>
      <trkpt lat="42.44155" lon="0.05754">
        <ele>807.8</ele>
        <time>2016-07-31T10:09:48Z</time>
      </trkpt>
      <trkpt lat="42.44157" lon="0.05757">
        <ele>807</ele>
        <time>2016-07-31T10:09:51Z</time>
      </trkpt>
      <trkpt lat="42.44159" lon="0.05761">
        <ele>806.3</ele>
        <time>2016-07-31T10:09:54Z</time>
      </trkpt>
      <trkpt lat="42.44159" lon="0.05766">
        <ele>805</ele>
        <time>2016-07-31T10:09:58Z</time>
      </trkpt>
      <trkpt lat="42.4416" lon="0.05769">
        <ele>804</ele>
        <time>2016-07-31T10:10:01Z</time>
      </trkpt>
      <trkpt lat="42.44162" lon="0.05773">
        <ele>803.4</ele>
        <time>2016-07-31T10:10:04Z</time>
      </trkpt>
      <trkpt lat="42.44164" lon="0.05776">
        <ele>802.7</ele>
        <time>2016-07-31T10:10:10Z</time>
      </trkpt>
      <trkpt lat="42.44166" lon="0.05779">
        <ele>802.2</ele>
        <time>2016-07-31T10:10:13Z</time>
      </trkpt>
      <trkpt lat="42.44167" lon="0.05783">
        <ele>801.1</ele>
        <time>2016-07-31T10:10:16Z</time>
      </trkpt>
      <trkpt lat="42.44168" lon="0.05787">
        <ele>800</ele>
        <time>2016-07-31T10:10:18Z</time>
      </trkpt>
      <trkpt lat="42.44168" lon="0.05791">
        <ele>798.9</ele>
        <time>2016-07-31T10:10:22Z</time>
      </trkpt>
      <trkpt lat="42.4417" lon="0.05795">
        <ele>798.1</ele>
        <time>2016-07-31T10:10:26Z</time>
      </trkpt>
      <trkpt lat="42.44172" lon="0.05798">
        <ele>797.8</ele>
        <time>2016-07-31T10:10:30Z</time>
      </trkpt>
      <trkpt lat="42.44174" lon="0.058">
        <ele>797.7</ele>
        <time>2016-07-31T10:10:34Z</time>
      </trkpt>
      <trkpt lat="42.44178" lon="0.058">
        <ele>798</ele>
        <time>2016-07-31T10:10:37Z</time>
      </trkpt>
      <trkpt lat="42.4418" lon="0.05802">
        <ele>797.9</ele>
        <time>2016-07-31T10:10:40Z</time>
      </trkpt>
      <trkpt lat="42.44182" lon="0.05805">
        <ele>797.4</ele>
        <time>2016-07-31T10:10:45Z</time>
      </trkpt>
      <trkpt lat="42.44184" lon="0.05809">
        <ele>796.6</ele>
        <time>2016-07-31T10:10:49Z</time>
      </trkpt>
      <trkpt lat="42.44184" lon="0.05813">
        <ele>795.7</ele>
        <time>2016-07-31T10:10:52Z</time>
      </trkpt>
      <trkpt lat="42.44186" lon="0.05817">
        <ele>795</ele>
        <time>2016-07-31T10:10:56Z</time>
      </trkpt>
      <trkpt lat="42.44189" lon="0.05819">
        <ele>794.8</ele>
        <time>2016-07-31T10:10:59Z</time>
      </trkpt>
      <trkpt lat="42.44191" lon="0.05822">
        <ele>794.3</ele>
        <time>2016-07-31T10:11:03Z</time>
      </trkpt>
      <trkpt lat="42.44192" lon="0.05826">
        <ele>793.3</ele>
        <time>2016-07-31T10:11:08Z</time>
      </trkpt>
      <trkpt lat="42.44192" lon="0.0583">
        <ele>792.3</ele>
        <time>2016-07-31T10:11:12Z</time>
      </trkpt>
      <trkpt lat="42.44193" lon="0.05835">
        <ele>791</ele>
        <time>2016-07-31T10:11:16Z</time>
      </trkpt>
      <trkpt lat="42.44195" lon="0.0584">
        <ele>790</ele>
        <time>2016-07-31T10:11:18Z</time>
      </trkpt>
      <trkpt lat="42.44198" lon="0.05844">
        <ele>789.2</ele>
        <time>2016-07-31T10:11:20Z</time>
      </trkpt>
      <trkpt lat="42.44201" lon="0.05848">
        <ele>788.5</ele>
        <time>2016-07-31T10:11:22Z</time>
      </trkpt>
      <trkpt lat="42.44204" lon="0.05852">
        <ele>788</ele>
        <time>2016-07-31T10:11:24Z</time>
      </trkpt>
      <trkpt lat="42.44207" lon="0.05855">
        <ele>787.3</ele>
        <time>2016-07-31T10:11:26Z</time>
      </trkpt>
      <trkpt lat="42.4421" lon="0.05861">
        <ele>786.2</ele>
        <time>2016-07-31T10:11:28Z</time>
      </trkpt>
      <trkpt lat="42.44213" lon="0.05866">
        <ele>785.1</ele>
        <time>2016-07-31T10:11:30Z</time>
      </trkpt>
      <trkpt lat="42.44214" lon="0.05869">
        <ele>784.2</ele>
        <time>2016-07-31T10:11:31Z</time>
      </trkpt>
      <trkpt lat="42.44215" lon="0.05875">
        <ele>782.7</ele>
        <time>2016-07-31T10:11:33Z</time>
      </trkpt>
      <trkpt lat="42.44217" lon="0.05881">
        <ele>781.6</ele>
        <time>2016-07-31T10:11:35Z</time>
      </trkpt>
      <trkpt lat="42.44219" lon="0.05888">
        <ele>780.1</ele>
        <time>2016-07-31T10:11:37Z</time>
      </trkpt>
      <trkpt lat="42.44221" lon="0.05892">
        <ele>779.4</ele>
        <time>2016-07-31T10:11:38Z</time>
      </trkpt>
      <trkpt lat="42.44222" lon="0.05896">
        <ele>778.7</ele>
        <time>2016-07-31T10:11:39Z</time>
      </trkpt>
      <trkpt lat="42.44224" lon="0.05899">
        <ele>778.1</ele>
        <time>2016-07-31T10:11:40Z</time>
      </trkpt>
      <trkpt lat="42.44225" lon="0.05904">
        <ele>777</ele>
        <time>2016-07-31T10:11:42Z</time>
      </trkpt>
      <trkpt lat="42.44225" lon="0.05909">
        <ele>775.8</ele>
        <time>2016-07-31T10:11:44Z</time>
      </trkpt>
      <trkpt lat="42.44224" lon="0.05914">
        <ele>774.6</ele>
        <time>2016-07-31T10:11:46Z</time>
      </trkpt>
      <trkpt lat="42.44226" lon="0.05919">
        <ele>773.6</ele>
        <time>2016-07-31T10:11:48Z</time>
      </trkpt>
      <trkpt lat="42.44229" lon="0.05922">
        <ele>773.2</ele>
        <time>2016-07-31T10:11:50Z</time>
      </trkpt>
      <trkpt lat="42.44233" lon="0.05926">
        <ele>772.6</ele>
        <time>2016-07-31T10:11:52Z</time>
      </trkpt>
      <trkpt lat="42.44236" lon="0.05931">
        <ele>771.8</ele>
        <time>2016-07-31T10:11:54Z</time>
      </trkpt>
      <trkpt lat="42.44238" lon="0.05935">
        <ele>771</ele>
        <time>2016-07-31T10:11:56Z</time>
      </trkpt>
      <trkpt lat="42.4424" lon="0.0594">
        <ele>770</ele>
        <time>2016-07-31T10:11:58Z</time>
      </trkpt>
      <trkpt lat="42.44241" lon="0.05946">
        <ele>768.6</ele>
        <time>2016-07-31T10:12:00Z</time>
      </trkpt>
      <trkpt lat="42.44242" lon="0.05952">
        <ele>767.4</ele>
        <time>2016-07-31T10:12:02Z</time>
      </trkpt>
      <trkpt lat="42.44244" lon="0.05955">
        <ele>766.7</ele>
        <time>2016-07-31T10:12:04Z</time>
      </trkpt>
      <trkpt lat="42.44247" lon="0.05958">
        <ele>766.4</ele>
        <time>2016-07-31T10:12:06Z</time>
      </trkpt>
      <trkpt lat="42.44249" lon="0.05961">
        <ele>765.4</ele>
        <time>2016-07-31T10:12:18Z</time>
      </trkpt>
      <trkpt lat="42.4425" lon="0.05965">
        <ele>764.5</ele>
        <time>2016-07-31T10:12:34Z</time>
      </trkpt>
      <trkpt lat="42.44251" lon="0.05969">
        <ele>763.4</ele>
        <time>2016-07-31T10:12:38Z</time>
      </trkpt>
      <trkpt lat="42.44252" lon="0.05972">
        <ele>762.5</ele>
        <time>2016-07-31T10:12:42Z</time>
      </trkpt>
      <trkpt lat="42.44254" lon="0.05976">
        <ele>761.3</ele>
        <time>2016-07-31T10:12:51Z</time>
      </trkpt>
      <trkpt lat="42.44255" lon="0.0598">
        <ele>760.1</ele>
        <time>2016-07-31T10:12:55Z</time>
      </trkpt>
      <trkpt lat="42.44255" lon="0.05984">
        <ele>758.9</ele>
        <time>2016-07-31T10:13:02Z</time>
      </trkpt>
      <trkpt lat="42.44256" lon="0.05988">
        <ele>757.8</ele>
        <time>2016-07-31T10:13:11Z</time>
      </trkpt>
      <trkpt lat="42.44258" lon="0.05991">
        <ele>757.2</ele>
        <time>2016-07-31T10:13:16Z</time>
      </trkpt>
      <trkpt lat="42.4426" lon="0.05994">
        <ele>756.3</ele>
        <time>2016-07-31T10:13:19Z</time>
      </trkpt>
      <trkpt lat="42.44263" lon="0.05998">
        <ele>755.3</ele>
        <time>2016-07-31T10:13:22Z</time>
      </trkpt>
      <trkpt lat="42.44265" lon="0.06">
        <ele>754.9</ele>
        <time>2016-07-31T10:13:26Z</time>
      </trkpt>
      <trkpt lat="42.44266" lon="0.06004">
        <ele>753.7</ele>
        <time>2016-07-31T10:13:32Z</time>
      </trkpt>
      <trkpt lat="42.44268" lon="0.06006">
        <ele>753</ele>
        <time>2016-07-31T10:13:37Z</time>
      </trkpt>
      <trkpt lat="42.44269" lon="0.0601">
        <ele>751.8</ele>
        <time>2016-07-31T10:13:42Z</time>
      </trkpt>
      <trkpt lat="42.44269" lon="0.06014">
        <ele>750.5</ele>
        <time>2016-07-31T10:13:45Z</time>
      </trkpt>
      <trkpt lat="42.44271" lon="0.06018">
        <ele>749.5</ele>
        <time>2016-07-31T10:13:50Z</time>
      </trkpt>
      <trkpt lat="42.44273" lon="0.0602">
        <ele>748.9</ele>
        <time>2016-07-31T10:13:57Z</time>
      </trkpt>
      <trkpt lat="42.44275" lon="0.06026">
        <ele>747.2</ele>
        <time>2016-07-31T10:13:59Z</time>
      </trkpt>
      <trkpt lat="42.44276" lon="0.0603">
        <ele>746</ele>
        <time>2016-07-31T10:14:00Z</time>
      </trkpt>
      <trkpt lat="42.44278" lon="0.06035">
        <ele>744.6</ele>
        <time>2016-07-31T10:14:01Z</time>
      </trkpt>
      <trkpt lat="42.44279" lon="0.06039">
        <ele>743.1</ele>
        <time>2016-07-31T10:14:02Z</time>
      </trkpt>
      <trkpt lat="42.44281" lon="0.06043">
        <ele>742.2</ele>
        <time>2016-07-31T10:14:03Z</time>
      </trkpt>
      <trkpt lat="42.44284" lon="0.06049">
        <ele>740.2</ele>
        <time>2016-07-31T10:14:05Z</time>
      </trkpt>
      <trkpt lat="42.44287" lon="0.06054">
        <ele>738.7</ele>
        <time>2016-07-31T10:14:06Z</time>
      </trkpt>
      <trkpt lat="42.4429" lon="0.06059">
        <ele>737.2</ele>
        <time>2016-07-31T10:14:07Z</time>
      </trkpt>
      <trkpt lat="42.44293" lon="0.06065">
        <ele>735.7</ele>
        <time>2016-07-31T10:14:08Z</time>
      </trkpt>
      <trkpt lat="42.44296" lon="0.0607">
        <ele>734.1</ele>
        <time>2016-07-31T10:14:09Z</time>
      </trkpt>
      <trkpt lat="42.44299" lon="0.06077">
        <ele>732.4</ele>
        <time>2016-07-31T10:14:10Z</time>
      </trkpt>
      <trkpt lat="42.44301" lon="0.06083">
        <ele>730.8</ele>
        <time>2016-07-31T10:14:11Z</time>
      </trkpt>
      <trkpt lat="42.44304" lon="0.06087">
        <ele>729.6</ele>
        <time>2016-07-31T10:14:12Z</time>
      </trkpt>
      <trkpt lat="42.44307" lon="0.06092">
        <ele>728.6</ele>
        <time>2016-07-31T10:14:13Z</time>
      </trkpt>
      <trkpt lat="42.4431" lon="0.06096">
        <ele>727.7</ele>
        <time>2016-07-31T10:14:14Z</time>
      </trkpt>
      <trkpt lat="42.44313" lon="0.06099">
        <ele>726.8</ele>
        <time>2016-07-31T10:14:15Z</time>
      </trkpt>
      <trkpt lat="42.44316" lon="0.06103">
        <ele>726.1</ele>
        <time>2016-07-31T10:14:16Z</time>
      </trkpt>
      <trkpt lat="42.44319" lon="0.06105">
        <ele>725.6</ele>
        <time>2016-07-31T10:14:17Z</time>
      </trkpt>
      <trkpt lat="42.44323" lon="0.06109">
        <ele>724.9</ele>
        <time>2016-07-31T10:14:19Z</time>
      </trkpt>
      <trkpt lat="42.44325" lon="0.06112">
        <ele>724.1</ele>
        <time>2016-07-31T10:14:20Z</time>
      </trkpt>
      <trkpt lat="42.44327" lon="0.06116">
        <ele>723.2</ele>
        <time>2016-07-31T10:14:21Z</time>
      </trkpt>
      <trkpt lat="42.44328" lon="0.0612">
        <ele>722</ele>
        <time>2016-07-31T10:14:22Z</time>
      </trkpt>
      <trkpt lat="42.4433" lon="0.06125">
        <ele>720.6</ele>
        <time>2016-07-31T10:14:24Z</time>
      </trkpt>
      <trkpt lat="42.44332" lon="0.06128">
        <ele>720</ele>
        <time>2016-07-31T10:14:26Z</time>
      </trkpt>
      <trkpt lat="42.44334" lon="0.06133">
        <ele>718.7</ele>
        <time>2016-07-31T10:14:28Z</time>
      </trkpt>
      <trkpt lat="42.44335" lon="0.06138">
        <ele>717.5</ele>
        <time>2016-07-31T10:14:30Z</time>
      </trkpt>
      <trkpt lat="42.44337" lon="0.06142">
        <ele>716.6</ele>
        <time>2016-07-31T10:14:31Z</time>
      </trkpt>
      <trkpt lat="42.44338" lon="0.06146">
        <ele>715.7</ele>
        <time>2016-07-31T10:14:32Z</time>
      </trkpt>
      <trkpt lat="42.44339" lon="0.06151">
        <ele>714.2</ele>
        <time>2016-07-31T10:14:34Z</time>
      </trkpt>
      <trkpt lat="42.44336" lon="0.06151">
        <ele>714</ele>
        <time>2016-07-31T10:15:45Z</time>
      </trkpt>
      <trkpt lat="42.44332" lon="0.06151">
        <ele>713.6</ele>
        <time>2016-07-31T10:15:47Z</time>
      </trkpt>
      <trkpt lat="42.44328" lon="0.06151">
        <ele>713.1</ele>
        <time>2016-07-31T10:15:49Z</time>
      </trkpt>
      <trkpt lat="42.44326" lon="0.06153">
        <ele>712.1</ele>
        <time>2016-07-31T10:15:52Z</time>
      </trkpt>
      <trkpt lat="42.44327" lon="0.06157">
        <ele>711.4</ele>
        <time>2016-07-31T10:15:56Z</time>
      </trkpt>
      <trkpt lat="42.44332" lon="0.06158">
        <ele>711.4</ele>
        <time>2016-07-31T10:15:59Z</time>
      </trkpt>
      <trkpt lat="42.44335" lon="0.06162">
        <ele>710.9</ele>
        <time>2016-07-31T10:16:01Z</time>
      </trkpt>
      <trkpt lat="42.44336" lon="0.06167">
        <ele>709.4</ele>
        <time>2016-07-31T10:16:03Z</time>
      </trkpt>
      <trkpt lat="42.44334" lon="0.06173">
        <ele>707.6</ele>
        <time>2016-07-31T10:16:05Z</time>
      </trkpt>
      <trkpt lat="42.44332" lon="0.06176">
        <ele>706.5</ele>
        <time>2016-07-31T10:16:07Z</time>
      </trkpt>
      <trkpt lat="42.44335" lon="0.06177">
        <ele>706.6</ele>
        <time>2016-07-31T10:16:17Z</time>
      </trkpt>
      <trkpt lat="42.44334" lon="0.06181">
        <ele>705.4</ele>
        <time>2016-07-31T10:16:25Z</time>
      </trkpt>
      <trkpt lat="42.44333" lon="0.06185">
        <ele>704</ele>
        <time>2016-07-31T10:16:28Z</time>
      </trkpt>
      <trkpt lat="42.44331" lon="0.06189">
        <ele>702.7</ele>
        <time>2016-07-31T10:16:30Z</time>
      </trkpt>
      <trkpt lat="42.44332" lon="0.06193">
        <ele>701.8</ele>
        <time>2016-07-31T10:16:34Z</time>
      </trkpt>
      <trkpt lat="42.44336" lon="0.06193">
        <ele>702.2</ele>
        <time>2016-07-31T10:16:36Z</time>
      </trkpt>
      <trkpt lat="42.44339" lon="0.06192">
        <ele>702.8</ele>
        <time>2016-07-31T10:16:38Z</time>
      </trkpt>
      <trkpt lat="42.4434" lon="0.06198">
        <ele>701.3</ele>
        <time>2016-07-31T10:16:41Z</time>
      </trkpt>
      <trkpt lat="42.44338" lon="0.06202">
        <ele>699.8</ele>
        <time>2016-07-31T10:16:43Z</time>
      </trkpt>
      <trkpt lat="42.44337" lon="0.06207">
        <ele>698.4</ele>
        <time>2016-07-31T10:16:45Z</time>
      </trkpt>
      <trkpt lat="42.44341" lon="0.06208">
        <ele>698.6</ele>
        <time>2016-07-31T10:16:49Z</time>
      </trkpt>
      <trkpt lat="42.44345" lon="0.06205">
        <ele>699.8</ele>
        <time>2016-07-31T10:16:51Z</time>
      </trkpt>
      <trkpt lat="42.44348" lon="0.06203">
        <ele>700.8</ele>
        <time>2016-07-31T10:16:53Z</time>
      </trkpt>
      <trkpt lat="42.44351" lon="0.06201">
        <ele>701.8</ele>
        <time>2016-07-31T10:16:55Z</time>
      </trkpt>
      <trkpt lat="42.44353" lon="0.06199">
        <ele>702.8</ele>
        <time>2016-07-31T10:16:57Z</time>
      </trkpt>
      <trkpt lat="42.44356" lon="0.06197">
        <ele>703.6</ele>
        <time>2016-07-31T10:16:59Z</time>
      </trkpt>
      <trkpt lat="42.44359" lon="0.06199">
        <ele>703.4</ele>
        <time>2016-07-31T10:17:09Z</time>
      </trkpt>
      <trkpt lat="42.4436" lon="0.06203">
        <ele>702.4</ele>
        <time>2016-07-31T10:17:15Z</time>
      </trkpt>
      <trkpt lat="42.44359" lon="0.06208">
        <ele>701.1</ele>
        <time>2016-07-31T10:17:18Z</time>
      </trkpt>
      <trkpt lat="42.44357" lon="0.06209">
        <ele>700.5</ele>
        <time>2016-07-31T10:17:21Z</time>
      </trkpt>
      <trkpt lat="42.44355" lon="0.06212">
        <ele>699.1</ele>
        <time>2016-07-31T10:17:25Z</time>
      </trkpt>
      <trkpt lat="42.44354" lon="0.06216">
        <ele>697.8</ele>
        <time>2016-07-31T10:17:28Z</time>
      </trkpt>
      <trkpt lat="42.44357" lon="0.06216">
        <ele>698.3</ele>
        <time>2016-07-31T10:17:35Z</time>
      </trkpt>
      <trkpt lat="42.4436" lon="0.06214">
        <ele>699.2</ele>
        <time>2016-07-31T10:17:39Z</time>
      </trkpt>
      <trkpt lat="42.44364" lon="0.06211">
        <ele>700.5</ele>
        <time>2016-07-31T10:17:42Z</time>
      </trkpt>
      <trkpt lat="42.44368" lon="0.06208">
        <ele>702.3</ele>
        <time>2016-07-31T10:17:44Z</time>
      </trkpt>
      <trkpt lat="42.44372" lon="0.06205">
        <ele>703.4</ele>
        <time>2016-07-31T10:17:45Z</time>
      </trkpt>
      <trkpt lat="42.44375" lon="0.06203">
        <ele>704.4</ele>
        <time>2016-07-31T10:17:46Z</time>
      </trkpt>
      <trkpt lat="42.44379" lon="0.06201">
        <ele>703.6</ele>
        <time>2016-07-31T10:17:47Z</time>
      </trkpt>
      <trkpt lat="42.44381" lon="0.06198">
        <ele>703.3</ele>
        <time>2016-07-31T10:17:48Z</time>
      </trkpt>
      <trkpt lat="42.44383" lon="0.06194">
        <ele>703.4</ele>
        <time>2016-07-31T10:17:50Z</time>
      </trkpt>
      <trkpt lat="42.44386" lon="0.06189">
        <ele>703.7</ele>
        <time>2016-07-31T10:17:52Z</time>
      </trkpt>
      <trkpt lat="42.44388" lon="0.06185">
        <ele>703.8</ele>
        <time>2016-07-31T10:17:53Z</time>
      </trkpt>
      <trkpt lat="42.4439" lon="0.06182">
        <ele>703.8</ele>
        <time>2016-07-31T10:17:54Z</time>
      </trkpt>
      <trkpt lat="42.44391" lon="0.06179">
        <ele>704.3</ele>
        <time>2016-07-31T10:17:55Z</time>
      </trkpt>
      <trkpt lat="42.44392" lon="0.06172">
        <ele>706</ele>
        <time>2016-07-31T10:17:57Z</time>
      </trkpt>
      <trkpt lat="42.44393" lon="0.06166">
        <ele>707.5</ele>
        <time>2016-07-31T10:17:59Z</time>
      </trkpt>
      <trkpt lat="42.44396" lon="0.06161">
        <ele>707.4</ele>
        <time>2016-07-31T10:18:01Z</time>
      </trkpt>
      <trkpt lat="42.44401" lon="0.06159">
        <ele>706</ele>
        <time>2016-07-31T10:18:03Z</time>
      </trkpt>
      <trkpt lat="42.44404" lon="0.06157">
        <ele>705</ele>
        <time>2016-07-31T10:18:05Z</time>
      </trkpt>
      <trkpt lat="42.44406" lon="0.0616">
        <ele>703.4</ele>
        <time>2016-07-31T10:18:09Z</time>
      </trkpt>
      <trkpt lat="42.44409" lon="0.06161">
        <ele>701.9</ele>
        <time>2016-07-31T10:18:12Z</time>
      </trkpt>
      <trkpt lat="42.44411" lon="0.06158">
        <ele>702</ele>
        <time>2016-07-31T10:18:17Z</time>
      </trkpt>
      <trkpt lat="42.44413" lon="0.06155">
        <ele>702.1</ele>
        <time>2016-07-31T10:18:24Z</time>
      </trkpt>
      <trkpt lat="42.44415" lon="0.06153">
        <ele>701.7</ele>
        <time>2016-07-31T10:18:27Z</time>
      </trkpt>
      <trkpt lat="42.44418" lon="0.06151">
        <ele>701.2</ele>
        <time>2016-07-31T10:18:31Z</time>
      </trkpt>
      <trkpt lat="42.44421" lon="0.0615">
        <ele>700.1</ele>
        <time>2016-07-31T10:18:33Z</time>
      </trkpt>
      <trkpt lat="42.44424" lon="0.0615">
        <ele>699</ele>
        <time>2016-07-31T10:18:34Z</time>
      </trkpt>
      <trkpt lat="42.44428" lon="0.06148">
        <ele>697.9</ele>
        <time>2016-07-31T10:18:35Z</time>
      </trkpt>
      <trkpt lat="42.44431" lon="0.06146">
        <ele>697</ele>
        <time>2016-07-31T10:18:36Z</time>
      </trkpt>
      <trkpt lat="42.44434" lon="0.06144">
        <ele>696.5</ele>
        <time>2016-07-31T10:18:37Z</time>
      </trkpt>
      <trkpt lat="42.44437" lon="0.06141">
        <ele>696.1</ele>
        <time>2016-07-31T10:18:38Z</time>
      </trkpt>
      <trkpt lat="42.44439" lon="0.06138">
        <ele>695.9</ele>
        <time>2016-07-31T10:18:39Z</time>
      </trkpt>
      <trkpt lat="42.44443" lon="0.06135">
        <ele>695.3</ele>
        <time>2016-07-31T10:18:41Z</time>
      </trkpt>
      <trkpt lat="42.44448" lon="0.06134">
        <ele>693.7</ele>
        <time>2016-07-31T10:18:43Z</time>
      </trkpt>
      <trkpt lat="42.44452" lon="0.06133">
        <ele>692.3</ele>
        <time>2016-07-31T10:18:45Z</time>
      </trkpt>
      <trkpt lat="42.44454" lon="0.06131">
        <ele>692.1</ele>
        <time>2016-07-31T10:18:47Z</time>
      </trkpt>
      <trkpt lat="42.44455" lon="0.06127">
        <ele>692.6</ele>
        <time>2016-07-31T10:18:50Z</time>
      </trkpt>
      <trkpt lat="42.44453" lon="0.06126">
        <ele>694</ele>
        <time>2016-07-31T10:18:56Z</time>
      </trkpt>
      <trkpt lat="42.44455" lon="0.06123">
        <ele>694</ele>
        <time>2016-07-31T10:19:03Z</time>
      </trkpt>
      <trkpt lat="42.44457" lon="0.06119">
        <ele>694.3</ele>
        <time>2016-07-31T10:19:07Z</time>
      </trkpt>
      <trkpt lat="42.44459" lon="0.06114">
        <ele>694.4</ele>
        <time>2016-07-31T10:19:10Z</time>
      </trkpt>
      <trkpt lat="42.44462" lon="0.06109">
        <ele>693.9</ele>
        <time>2016-07-31T10:19:12Z</time>
      </trkpt>
      <trkpt lat="42.44463" lon="0.06104">
        <ele>694.3</ele>
        <time>2016-07-31T10:19:14Z</time>
      </trkpt>
      <trkpt lat="42.44464" lon="0.061">
        <ele>694.9</ele>
        <time>2016-07-31T10:19:15Z</time>
      </trkpt>
      <trkpt lat="42.44465" lon="0.06096">
        <ele>695.5</ele>
        <time>2016-07-31T10:19:16Z</time>
      </trkpt>
      <trkpt lat="42.44466" lon="0.06092">
        <ele>696</ele>
        <time>2016-07-31T10:19:17Z</time>
      </trkpt>
      <trkpt lat="42.44467" lon="0.06088">
        <ele>696.2</ele>
        <time>2016-07-31T10:19:18Z</time>
      </trkpt>
      <trkpt lat="42.44469" lon="0.06084">
        <ele>695.9</ele>
        <time>2016-07-31T10:19:19Z</time>
      </trkpt>
      <trkpt lat="42.4447" lon="0.06081">
        <ele>695.3</ele>
        <time>2016-07-31T10:19:20Z</time>
      </trkpt>
      <trkpt lat="42.44474" lon="0.06077">
        <ele>693.9</ele>
        <time>2016-07-31T10:19:22Z</time>
      </trkpt>
      <trkpt lat="42.44476" lon="0.06072">
        <ele>693.1</ele>
        <time>2016-07-31T10:19:24Z</time>
      </trkpt>
      <trkpt lat="42.44478" lon="0.06068">
        <ele>693</ele>
        <time>2016-07-31T10:19:26Z</time>
      </trkpt>
      <trkpt lat="42.44481" lon="0.06061">
        <ele>692.9</ele>
        <time>2016-07-31T10:19:28Z</time>
      </trkpt>
      <trkpt lat="42.44483" lon="0.06057">
        <ele>692</ele>
        <time>2016-07-31T10:19:29Z</time>
      </trkpt>
      <trkpt lat="42.44486" lon="0.06053">
        <ele>690.6</ele>
        <time>2016-07-31T10:19:30Z</time>
      </trkpt>
      <trkpt lat="42.44489" lon="0.06051">
        <ele>688.8</ele>
        <time>2016-07-31T10:19:32Z</time>
      </trkpt>
      <trkpt lat="42.4449" lon="0.06055">
        <ele>687</ele>
        <time>2016-07-31T10:19:34Z</time>
      </trkpt>
      <trkpt lat="42.44489" lon="0.06059">
        <ele>686.6</ele>
        <time>2016-07-31T10:19:35Z</time>
      </trkpt>
      <trkpt lat="42.44488" lon="0.06063">
        <ele>686.6</ele>
        <time>2016-07-31T10:19:36Z</time>
      </trkpt>
      <trkpt lat="42.44486" lon="0.06067">
        <ele>686.8</ele>
        <time>2016-07-31T10:19:37Z</time>
      </trkpt>
      <trkpt lat="42.44485" lon="0.06071">
        <ele>686.8</ele>
        <time>2016-07-31T10:19:38Z</time>
      </trkpt>
      <trkpt lat="42.44484" lon="0.06074">
        <ele>686.6</ele>
        <time>2016-07-31T10:19:39Z</time>
      </trkpt>
      <trkpt lat="42.44482" lon="0.06078">
        <ele>687.3</ele>
        <time>2016-07-31T10:19:40Z</time>
      </trkpt>
      <trkpt lat="42.4448" lon="0.06082">
        <ele>687.5</ele>
        <time>2016-07-31T10:19:42Z</time>
      </trkpt>
      <trkpt lat="42.44484" lon="0.06084">
        <ele>683.7</ele>
        <time>2016-07-31T10:19:52Z</time>
      </trkpt>
      <trkpt lat="42.44488" lon="0.06083">
        <ele>681.6</ele>
        <time>2016-07-31T10:19:59Z</time>
      </trkpt>
      <trkpt lat="42.44488" lon="0.06087">
        <ele>680</ele>
        <time>2016-07-31T10:20:55Z</time>
      </trkpt>
      <trkpt lat="42.4449" lon="0.06091">
        <ele>677.6</ele>
        <time>2016-07-31T10:20:57Z</time>
      </trkpt>
      <trkpt lat="42.44491" lon="0.06098">
        <ele>674.7</ele>
        <time>2016-07-31T10:20:59Z</time>
      </trkpt>
      <trkpt lat="42.44493" lon="0.06104">
        <ele>671.6</ele>
        <time>2016-07-31T10:21:01Z</time>
      </trkpt>
      <trkpt lat="42.44495" lon="0.06109">
        <ele>668.8</ele>
        <time>2016-07-31T10:21:03Z</time>
      </trkpt>
      <trkpt lat="42.44499" lon="0.06109">
        <ele>665.8</ele>
        <time>2016-07-31T10:21:05Z</time>
      </trkpt>
      <trkpt lat="42.44503" lon="0.0611">
        <ele>662.5</ele>
        <time>2016-07-31T10:21:07Z</time>
      </trkpt>
      <trkpt lat="42.44505" lon="0.06113">
        <ele>660.5</ele>
        <time>2016-07-31T10:21:09Z</time>
      </trkpt>
      <trkpt lat="42.44504" lon="0.06119">
        <ele>659.6</ele>
        <time>2016-07-31T10:21:11Z</time>
      </trkpt>
      <trkpt lat="42.44502" lon="0.06125">
        <ele>659.3</ele>
        <time>2016-07-31T10:21:13Z</time>
      </trkpt>
      <trkpt lat="42.44506" lon="0.06124">
        <ele>656.6</ele>
        <time>2016-07-31T10:21:19Z</time>
      </trkpt>
      <trkpt lat="42.44509" lon="0.06122">
        <ele>655.3</ele>
        <time>2016-07-31T10:21:22Z</time>
      </trkpt>
      <trkpt lat="42.4451" lon="0.06126">
        <ele>653.6</ele>
        <time>2016-07-31T10:21:30Z</time>
      </trkpt>
      <trkpt lat="42.44507" lon="0.0613">
        <ele>654.4</ele>
        <time>2016-07-31T10:21:32Z</time>
      </trkpt>
      <trkpt lat="42.44504" lon="0.06134">
        <ele>655.9</ele>
        <time>2016-07-31T10:21:34Z</time>
      </trkpt>
      <trkpt lat="42.44501" lon="0.06136">
        <ele>657.4</ele>
        <time>2016-07-31T10:21:36Z</time>
      </trkpt>
      <trkpt lat="42.44499" lon="0.0614">
        <ele>658</ele>
        <time>2016-07-31T10:21:38Z</time>
      </trkpt>
      <trkpt lat="42.44499" lon="0.06144">
        <ele>657.3</ele>
        <time>2016-07-31T10:21:40Z</time>
      </trkpt>
      <trkpt lat="42.445" lon="0.06149">
        <ele>655.8</ele>
        <time>2016-07-31T10:21:42Z</time>
      </trkpt>
      <trkpt lat="42.44501" lon="0.06152">
        <ele>654.3</ele>
        <time>2016-07-31T10:21:44Z</time>
      </trkpt>
      <trkpt lat="42.445" lon="0.06158">
        <ele>653.5</ele>
        <time>2016-07-31T10:21:46Z</time>
      </trkpt>
      <trkpt lat="42.44499" lon="0.06161">
        <ele>653.4</ele>
        <time>2016-07-31T10:21:47Z</time>
      </trkpt>
      <trkpt lat="42.44497" lon="0.06166">
        <ele>653.3</ele>
        <time>2016-07-31T10:21:48Z</time>
      </trkpt>
      <trkpt lat="42.44496" lon="0.0617">
        <ele>653.1</ele>
        <time>2016-07-31T10:21:49Z</time>
      </trkpt>
      <trkpt lat="42.44495" lon="0.06174">
        <ele>652.9</ele>
        <time>2016-07-31T10:21:50Z</time>
      </trkpt>
      <trkpt lat="42.44494" lon="0.06178">
        <ele>652.5</ele>
        <time>2016-07-31T10:21:51Z</time>
      </trkpt>
      <trkpt lat="42.44494" lon="0.06185">
        <ele>650.9</ele>
        <time>2016-07-31T10:21:53Z</time>
      </trkpt>
      <trkpt lat="42.44494" lon="0.06189">
        <ele>650.2</ele>
        <time>2016-07-31T10:21:54Z</time>
      </trkpt>
      <trkpt lat="42.44493" lon="0.06193">
        <ele>649.8</ele>
        <time>2016-07-31T10:21:55Z</time>
      </trkpt>
      <trkpt lat="42.44492" lon="0.06197">
        <ele>649.3</ele>
        <time>2016-07-31T10:21:56Z</time>
      </trkpt>
      <trkpt lat="42.4449" lon="0.06202">
        <ele>649.1</ele>
        <time>2016-07-31T10:21:57Z</time>
      </trkpt>
      <trkpt lat="42.44489" lon="0.06206">
        <ele>649.1</ele>
        <time>2016-07-31T10:21:58Z</time>
      </trkpt>
      <trkpt lat="42.44487" lon="0.0621">
        <ele>649</ele>
        <time>2016-07-31T10:21:59Z</time>
      </trkpt>
      <trkpt lat="42.44485" lon="0.06213">
        <ele>649.3</ele>
        <time>2016-07-31T10:22:00Z</time>
      </trkpt>
      <trkpt lat="42.44483" lon="0.06218">
        <ele>649.2</ele>
        <time>2016-07-31T10:22:01Z</time>
      </trkpt>
      <trkpt lat="42.44481" lon="0.06223">
        <ele>648.8</ele>
        <time>2016-07-31T10:22:02Z</time>
      </trkpt>
      <trkpt lat="42.44478" lon="0.06228">
        <ele>648.7</ele>
        <time>2016-07-31T10:22:03Z</time>
      </trkpt>
      <trkpt lat="42.44476" lon="0.06234">
        <ele>648.4</ele>
        <time>2016-07-31T10:22:04Z</time>
      </trkpt>
      <trkpt lat="42.44475" lon="0.06239">
        <ele>647.4</ele>
        <time>2016-07-31T10:22:05Z</time>
      </trkpt>
      <trkpt lat="42.44474" lon="0.06242">
        <ele>646.3</ele>
        <time>2016-07-31T10:22:06Z</time>
      </trkpt>
      <trkpt lat="42.44475" lon="0.06246">
        <ele>644.6</ele>
        <time>2016-07-31T10:22:07Z</time>
      </trkpt>
      <trkpt lat="42.44477" lon="0.0625">
        <ele>642.6</ele>
        <time>2016-07-31T10:22:08Z</time>
      </trkpt>
      <trkpt lat="42.44479" lon="0.06253">
        <ele>640.5</ele>
        <time>2016-07-31T10:22:09Z</time>
      </trkpt>
      <trkpt lat="42.44482" lon="0.06258">
        <ele>637.2</ele>
        <time>2016-07-31T10:22:11Z</time>
      </trkpt>
      <trkpt lat="42.44484" lon="0.06261">
        <ele>635.4</ele>
        <time>2016-07-31T10:22:12Z</time>
      </trkpt>
      <trkpt lat="42.44485" lon="0.06265">
        <ele>633.8</ele>
        <time>2016-07-31T10:22:13Z</time>
      </trkpt>
      <trkpt lat="42.44485" lon="0.0627">
        <ele>632.2</ele>
        <time>2016-07-31T10:22:14Z</time>
      </trkpt>
      <trkpt lat="42.44485" lon="0.06275">
        <ele>630.9</ele>
        <time>2016-07-31T10:22:15Z</time>
      </trkpt>
      <trkpt lat="42.44483" lon="0.06281">
        <ele>629.8</ele>
        <time>2016-07-31T10:22:16Z</time>
      </trkpt>
      <trkpt lat="42.44482" lon="0.06287">
        <ele>628.8</ele>
        <time>2016-07-31T10:22:17Z</time>
      </trkpt>
      <trkpt lat="42.4448" lon="0.06293">
        <ele>627.8</ele>
        <time>2016-07-31T10:22:18Z</time>
      </trkpt>
      <trkpt lat="42.44478" lon="0.06298">
        <ele>627.3</ele>
        <time>2016-07-31T10:22:19Z</time>
      </trkpt>
      <trkpt lat="42.44476" lon="0.06305">
        <ele>626.6</ele>
        <time>2016-07-31T10:22:20Z</time>
      </trkpt>
      <trkpt lat="42.44475" lon="0.06311">
        <ele>625.8</ele>
        <time>2016-07-31T10:22:21Z</time>
      </trkpt>
      <trkpt lat="42.44473" lon="0.06316">
        <ele>625.1</ele>
        <time>2016-07-31T10:22:22Z</time>
      </trkpt>
      <trkpt lat="42.44471" lon="0.06321">
        <ele>624.6</ele>
        <time>2016-07-31T10:22:23Z</time>
      </trkpt>
      <trkpt lat="42.4447" lon="0.06326">
        <ele>623.8</ele>
        <time>2016-07-31T10:22:24Z</time>
      </trkpt>
      <trkpt lat="42.44468" lon="0.06331">
        <ele>622.9</ele>
        <time>2016-07-31T10:22:25Z</time>
      </trkpt>
      <trkpt lat="42.44467" lon="0.06337">
        <ele>621.9</ele>
        <time>2016-07-31T10:22:26Z</time>
      </trkpt>
      <trkpt lat="42.44466" lon="0.06342">
        <ele>620.8</ele>
        <time>2016-07-31T10:22:27Z</time>
      </trkpt>
      <trkpt lat="42.44464" lon="0.06348">
        <ele>619.8</ele>
        <time>2016-07-31T10:22:28Z</time>
      </trkpt>
      <trkpt lat="42.44463" lon="0.06354">
        <ele>618.6</ele>
        <time>2016-07-31T10:22:29Z</time>
      </trkpt>
      <trkpt lat="42.44462" lon="0.0636">
        <ele>617.3</ele>
        <time>2016-07-31T10:22:30Z</time>
      </trkpt>
      <trkpt lat="42.4446" lon="0.06366">
        <ele>616</ele>
        <time>2016-07-31T10:22:31Z</time>
      </trkpt>
      <trkpt lat="42.44459" lon="0.06372">
        <ele>614.7</ele>
        <time>2016-07-31T10:22:32Z</time>
      </trkpt>
      <trkpt lat="42.44458" lon="0.06377">
        <ele>613.6</ele>
        <time>2016-07-31T10:22:33Z</time>
      </trkpt>
      <trkpt lat="42.44457" lon="0.06383">
        <ele>613</ele>
        <time>2016-07-31T10:22:34Z</time>
      </trkpt>
      <trkpt lat="42.44456" lon="0.06388">
        <ele>612.4</ele>
        <time>2016-07-31T10:22:35Z</time>
      </trkpt>
      <trkpt lat="42.44455" lon="0.06394">
        <ele>611.7</ele>
        <time>2016-07-31T10:22:36Z</time>
      </trkpt>
      <trkpt lat="42.44454" lon="0.064">
        <ele>611</ele>
        <time>2016-07-31T10:22:37Z</time>
      </trkpt>
      <trkpt lat="42.44453" lon="0.06405">
        <ele>610.3</ele>
        <time>2016-07-31T10:22:38Z</time>
      </trkpt>
      <trkpt lat="42.44451" lon="0.06411">
        <ele>609.7</ele>
        <time>2016-07-31T10:22:39Z</time>
      </trkpt>
      <trkpt lat="42.44449" lon="0.06416">
        <ele>609.2</ele>
        <time>2016-07-31T10:22:40Z</time>
      </trkpt>
      <trkpt lat="42.44447" lon="0.06421">
        <ele>608.7</ele>
        <time>2016-07-31T10:22:41Z</time>
      </trkpt>
      <trkpt lat="42.44445" lon="0.06426">
        <ele>608.2</ele>
        <time>2016-07-31T10:22:42Z</time>
      </trkpt>
      <trkpt lat="42.44443" lon="0.06431">
        <ele>607.6</ele>
        <time>2016-07-31T10:22:43Z</time>
      </trkpt>
      <trkpt lat="42.44441" lon="0.06437">
        <ele>606.9</ele>
        <time>2016-07-31T10:22:44Z</time>
      </trkpt>
      <trkpt lat="42.44439" lon="0.06443">
        <ele>606.2</ele>
        <time>2016-07-31T10:22:45Z</time>
      </trkpt>
      <trkpt lat="42.44437" lon="0.06448">
        <ele>605.4</ele>
        <time>2016-07-31T10:22:46Z</time>
      </trkpt>
      <trkpt lat="42.44435" lon="0.06454">
        <ele>604.6</ele>
        <time>2016-07-31T10:22:47Z</time>
      </trkpt>
      <trkpt lat="42.44432" lon="0.06459">
        <ele>603.9</ele>
        <time>2016-07-31T10:22:48Z</time>
      </trkpt>
      <trkpt lat="42.4443" lon="0.06465">
        <ele>603.8</ele>
        <time>2016-07-31T10:22:49Z</time>
      </trkpt>
      <trkpt lat="42.44427" lon="0.0647">
        <ele>603.8</ele>
        <time>2016-07-31T10:22:50Z</time>
      </trkpt>
      <trkpt lat="42.44425" lon="0.06476">
        <ele>603.7</ele>
        <time>2016-07-31T10:22:51Z</time>
      </trkpt>
      <trkpt lat="42.44422" lon="0.06481">
        <ele>603.5</ele>
        <time>2016-07-31T10:22:52Z</time>
      </trkpt>
      <trkpt lat="42.44419" lon="0.06486">
        <ele>603.4</ele>
        <time>2016-07-31T10:22:53Z</time>
      </trkpt>
      <trkpt lat="42.44417" lon="0.06491">
        <ele>603.3</ele>
        <time>2016-07-31T10:22:54Z</time>
      </trkpt>
      <trkpt lat="42.44414" lon="0.06496">
        <ele>603.1</ele>
        <time>2016-07-31T10:22:55Z</time>
      </trkpt>
      <trkpt lat="42.44411" lon="0.06501">
        <ele>602.9</ele>
        <time>2016-07-31T10:22:56Z</time>
      </trkpt>
      <trkpt lat="42.44409" lon="0.06507">
        <ele>602.6</ele>
        <time>2016-07-31T10:22:57Z</time>
      </trkpt>
      <trkpt lat="42.44406" lon="0.06512">
        <ele>602.4</ele>
        <time>2016-07-31T10:22:58Z</time>
      </trkpt>
      <trkpt lat="42.44403" lon="0.06517">
        <ele>602.1</ele>
        <time>2016-07-31T10:22:59Z</time>
      </trkpt>
      <trkpt lat="42.444" lon="0.06522">
        <ele>601.8</ele>
        <time>2016-07-31T10:23:00Z</time>
      </trkpt>
      <trkpt lat="42.44398" lon="0.06527">
        <ele>601.6</ele>
        <time>2016-07-31T10:23:01Z</time>
      </trkpt>
      <trkpt lat="42.44395" lon="0.06531">
        <ele>601.2</ele>
        <time>2016-07-31T10:23:02Z</time>
      </trkpt>
      <trkpt lat="42.44393" lon="0.06535">
        <ele>601</ele>
        <time>2016-07-31T10:23:03Z</time>
      </trkpt>
      <trkpt lat="42.44391" lon="0.06539">
        <ele>600.7</ele>
        <time>2016-07-31T10:23:04Z</time>
      </trkpt>
      <trkpt lat="42.44387" lon="0.06543">
        <ele>600.6</ele>
        <time>2016-07-31T10:23:06Z</time>
      </trkpt>
      <trkpt lat="42.44384" lon="0.06543">
        <ele>600.9</ele>
        <time>2016-07-31T10:23:07Z</time>
      </trkpt>
      <trkpt lat="42.4438" lon="0.06542">
        <ele>601.4</ele>
        <time>2016-07-31T10:23:08Z</time>
      </trkpt>
      <trkpt lat="42.44377" lon="0.06541">
        <ele>601.9</ele>
        <time>2016-07-31T10:23:09Z</time>
      </trkpt>
      <trkpt lat="42.44373" lon="0.06541">
        <ele>602.2</ele>
        <time>2016-07-31T10:23:10Z</time>
      </trkpt>
      <trkpt lat="42.4437" lon="0.06542">
        <ele>602.4</ele>
        <time>2016-07-31T10:23:11Z</time>
      </trkpt>
      <trkpt lat="42.44367" lon="0.06542">
        <ele>602.5</ele>
        <time>2016-07-31T10:23:12Z</time>
      </trkpt>
      <trkpt lat="42.44362" lon="0.06544">
        <ele>602.7</ele>
        <time>2016-07-31T10:23:14Z</time>
      </trkpt>
      <trkpt lat="42.44357" lon="0.06547">
        <ele>602.9</ele>
        <time>2016-07-31T10:23:16Z</time>
      </trkpt>
      <trkpt lat="42.44353" lon="0.06549">
        <ele>603</ele>
        <time>2016-07-31T10:23:18Z</time>
      </trkpt>
      <trkpt lat="42.4435" lon="0.06552">
        <ele>603</ele>
        <time>2016-07-31T10:23:20Z</time>
      </trkpt>
      <trkpt lat="42.44346" lon="0.06555">
        <ele>603.1</ele>
        <time>2016-07-31T10:23:22Z</time>
      </trkpt>
      <trkpt lat="42.44343" lon="0.06558">
        <ele>603</ele>
        <time>2016-07-31T10:23:24Z</time>
      </trkpt>
      <trkpt lat="42.44341" lon="0.0656">
        <ele>603</ele>
        <time>2016-07-31T10:23:26Z</time>
      </trkpt>
      <trkpt lat="42.44338" lon="0.06563">
        <ele>603</ele>
        <time>2016-07-31T10:23:29Z</time>
      </trkpt>
      <trkpt lat="42.44339" lon="0.06567">
        <ele>602.7</ele>
        <time>2016-07-31T10:23:44Z</time>
      </trkpt>
      <trkpt lat="42.44337" lon="0.06563">
        <ele>603.1</ele>
        <time>2016-07-31T10:28:45Z</time>
      </trkpt>
      <trkpt lat="42.44333" lon="0.06561">
        <ele>603.5</ele>
        <time>2016-07-31T10:28:48Z</time>
      </trkpt>
      <trkpt lat="42.44329" lon="0.06562">
        <ele>603.7</ele>
        <time>2016-07-31T10:28:50Z</time>
      </trkpt>
      <trkpt lat="42.44325" lon="0.06565">
        <ele>603.7</ele>
        <time>2016-07-31T10:28:52Z</time>
      </trkpt>
      <trkpt lat="42.44322" lon="0.06568">
        <ele>603.7</ele>
        <time>2016-07-31T10:28:54Z</time>
      </trkpt>
      <trkpt lat="42.44318" lon="0.06571">
        <ele>603.8</ele>
        <time>2016-07-31T10:28:56Z</time>
      </trkpt>
      <trkpt lat="42.44314" lon="0.06573">
        <ele>603.8</ele>
        <time>2016-07-31T10:28:58Z</time>
      </trkpt>
      <trkpt lat="42.4431" lon="0.06576">
        <ele>603.8</ele>
        <time>2016-07-31T10:29:00Z</time>
      </trkpt>
      <trkpt lat="42.44308" lon="0.06579">
        <ele>603.8</ele>
        <time>2016-07-31T10:29:01Z</time>
      </trkpt>
      <trkpt lat="42.44306" lon="0.06581">
        <ele>603.7</ele>
        <time>2016-07-31T10:29:02Z</time>
      </trkpt>
      <trkpt lat="42.44304" lon="0.06584">
        <ele>603.7</ele>
        <time>2016-07-31T10:29:03Z</time>
      </trkpt>
      <trkpt lat="42.44301" lon="0.06586">
        <ele>603.7</ele>
        <time>2016-07-31T10:29:04Z</time>
      </trkpt>
      <trkpt lat="42.44299" lon="0.06588">
        <ele>603.6</ele>
        <time>2016-07-31T10:29:05Z</time>
      </trkpt>
      <trkpt lat="42.44296" lon="0.06591">
        <ele>603.6</ele>
        <time>2016-07-31T10:29:06Z</time>
      </trkpt>
      <trkpt lat="42.44294" lon="0.06593">
        <ele>603.6</ele>
        <time>2016-07-31T10:29:07Z</time>
      </trkpt>
      <trkpt lat="42.44291" lon="0.06595">
        <ele>603.5</ele>
        <time>2016-07-31T10:29:08Z</time>
      </trkpt>
      <trkpt lat="42.44289" lon="0.06598">
        <ele>603.3</ele>
        <time>2016-07-31T10:29:09Z</time>
      </trkpt>
      <trkpt lat="42.44286" lon="0.066">
        <ele>603.1</ele>
        <time>2016-07-31T10:29:10Z</time>
      </trkpt>
      <trkpt lat="42.44284" lon="0.06602">
        <ele>602.9</ele>
        <time>2016-07-31T10:29:11Z</time>
      </trkpt>
      <trkpt lat="42.44281" lon="0.06604">
        <ele>602.7</ele>
        <time>2016-07-31T10:29:12Z</time>
      </trkpt>
      <trkpt lat="42.44279" lon="0.06607">
        <ele>602.5</ele>
        <time>2016-07-31T10:29:13Z</time>
      </trkpt>
      <trkpt lat="42.44276" lon="0.06609">
        <ele>602.2</ele>
        <time>2016-07-31T10:29:14Z</time>
      </trkpt>
      <trkpt lat="42.44273" lon="0.06612">
        <ele>602</ele>
        <time>2016-07-31T10:29:15Z</time>
      </trkpt>
      <trkpt lat="42.44271" lon="0.06615">
        <ele>601.7</ele>
        <time>2016-07-31T10:29:16Z</time>
      </trkpt>
      <trkpt lat="42.44268" lon="0.06618">
        <ele>601.4</ele>
        <time>2016-07-31T10:29:17Z</time>
      </trkpt>
      <trkpt lat="42.44265" lon="0.06621">
        <ele>601</ele>
        <time>2016-07-31T10:29:18Z</time>
      </trkpt>
      <trkpt lat="42.44261" lon="0.06625">
        <ele>600.6</ele>
        <time>2016-07-31T10:29:19Z</time>
      </trkpt>
      <trkpt lat="42.44258" lon="0.06628">
        <ele>600.4</ele>
        <time>2016-07-31T10:29:20Z</time>
      </trkpt>
      <trkpt lat="42.44255" lon="0.06632">
        <ele>600.1</ele>
        <time>2016-07-31T10:29:21Z</time>
      </trkpt>
      <trkpt lat="42.44252" lon="0.06635">
        <ele>599.9</ele>
        <time>2016-07-31T10:29:22Z</time>
      </trkpt>
      <trkpt lat="42.44249" lon="0.06639">
        <ele>599.6</ele>
        <time>2016-07-31T10:29:23Z</time>
      </trkpt>
      <trkpt lat="42.44246" lon="0.06642">
        <ele>599.4</ele>
        <time>2016-07-31T10:29:24Z</time>
      </trkpt>
      <trkpt lat="42.44242" lon="0.06646">
        <ele>599.1</ele>
        <time>2016-07-31T10:29:25Z</time>
      </trkpt>
      <trkpt lat="42.44238" lon="0.06649">
        <ele>598.9</ele>
        <time>2016-07-31T10:29:26Z</time>
      </trkpt>
      <trkpt lat="42.44235" lon="0.06652">
        <ele>598.7</ele>
        <time>2016-07-31T10:29:27Z</time>
      </trkpt>
      <trkpt lat="42.44231" lon="0.06655">
        <ele>598.5</ele>
        <time>2016-07-31T10:29:28Z</time>
      </trkpt>
      <trkpt lat="42.44228" lon="0.06659">
        <ele>598.3</ele>
        <time>2016-07-31T10:29:29Z</time>
      </trkpt>
      <trkpt lat="42.44224" lon="0.06662">
        <ele>598.2</ele>
        <time>2016-07-31T10:29:30Z</time>
      </trkpt>
      <trkpt lat="42.4422" lon="0.06665">
        <ele>598</ele>
        <time>2016-07-31T10:29:31Z</time>
      </trkpt>
      <trkpt lat="42.44217" lon="0.06668">
        <ele>597.9</ele>
        <time>2016-07-31T10:29:32Z</time>
      </trkpt>
      <trkpt lat="42.44212" lon="0.0667">
        <ele>597.8</ele>
        <time>2016-07-31T10:29:33Z</time>
      </trkpt>
      <trkpt lat="42.44208" lon="0.06671">
        <ele>597.8</ele>
        <time>2016-07-31T10:29:34Z</time>
      </trkpt>
      <trkpt lat="42.44204" lon="0.06673">
        <ele>597.7</ele>
        <time>2016-07-31T10:29:35Z</time>
      </trkpt>
      <trkpt lat="42.442" lon="0.06674">
        <ele>597.7</ele>
        <time>2016-07-31T10:29:36Z</time>
      </trkpt>
      <trkpt lat="42.44195" lon="0.06675">
        <ele>597.6</ele>
        <time>2016-07-31T10:29:37Z</time>
      </trkpt>
      <trkpt lat="42.44191" lon="0.06675">
        <ele>597.6</ele>
        <time>2016-07-31T10:29:38Z</time>
      </trkpt>
      <trkpt lat="42.44187" lon="0.06676">
        <ele>597.6</ele>
        <time>2016-07-31T10:29:39Z</time>
      </trkpt>
      <trkpt lat="42.44183" lon="0.06677">
        <ele>597.5</ele>
        <time>2016-07-31T10:29:40Z</time>
      </trkpt>
      <trkpt lat="42.44179" lon="0.06678">
        <ele>597.5</ele>
        <time>2016-07-31T10:29:41Z</time>
      </trkpt>
      <trkpt lat="42.44175" lon="0.0668">
        <ele>597.4</ele>
        <time>2016-07-31T10:29:42Z</time>
      </trkpt>
      <trkpt lat="42.44171" lon="0.06681">
        <ele>597.3</ele>
        <time>2016-07-31T10:29:43Z</time>
      </trkpt>
      <trkpt lat="42.44167" lon="0.06682">
        <ele>597.3</ele>
        <time>2016-07-31T10:29:44Z</time>
      </trkpt>
      <trkpt lat="42.44163" lon="0.06683">
        <ele>597.2</ele>
        <time>2016-07-31T10:29:45Z</time>
      </trkpt>
      <trkpt lat="42.44159" lon="0.06683">
        <ele>597.2</ele>
        <time>2016-07-31T10:29:46Z</time>
      </trkpt>
      <trkpt lat="42.44155" lon="0.06683">
        <ele>597.2</ele>
        <time>2016-07-31T10:29:47Z</time>
      </trkpt>
      <trkpt lat="42.4415" lon="0.06683">
        <ele>597.1</ele>
        <time>2016-07-31T10:29:48Z</time>
      </trkpt>
      <trkpt lat="42.44146" lon="0.06684">
        <ele>597.1</ele>
        <time>2016-07-31T10:29:49Z</time>
      </trkpt>
      <trkpt lat="42.44141" lon="0.06684">
        <ele>597.1</ele>
        <time>2016-07-31T10:29:50Z</time>
      </trkpt>
      <trkpt lat="42.44137" lon="0.06685">
        <ele>597</ele>
        <time>2016-07-31T10:29:51Z</time>
      </trkpt>
      <trkpt lat="42.44132" lon="0.06686">
        <ele>596.9</ele>
        <time>2016-07-31T10:29:52Z</time>
      </trkpt>
      <trkpt lat="42.44128" lon="0.06687">
        <ele>596.8</ele>
        <time>2016-07-31T10:29:53Z</time>
      </trkpt>
      <trkpt lat="42.44123" lon="0.06687">
        <ele>596.8</ele>
        <time>2016-07-31T10:29:54Z</time>
      </trkpt>
      <trkpt lat="42.44119" lon="0.06687">
        <ele>596.9</ele>
        <time>2016-07-31T10:29:55Z</time>
      </trkpt>
      <trkpt lat="42.44114" lon="0.06686">
        <ele>597.1</ele>
        <time>2016-07-31T10:29:56Z</time>
      </trkpt>
      <trkpt lat="42.4411" lon="0.06685">
        <ele>597.2</ele>
        <time>2016-07-31T10:29:57Z</time>
      </trkpt>
      <trkpt lat="42.44105" lon="0.06684">
        <ele>597.3</ele>
        <time>2016-07-31T10:29:58Z</time>
      </trkpt>
      <trkpt lat="42.44101" lon="0.06684">
        <ele>597.4</ele>
        <time>2016-07-31T10:29:59Z</time>
      </trkpt>
      <trkpt lat="42.44096" lon="0.06683">
        <ele>597.6</ele>
        <time>2016-07-31T10:30:00Z</time>
      </trkpt>
      <trkpt lat="42.44091" lon="0.06683">
        <ele>597.7</ele>
        <time>2016-07-31T10:30:01Z</time>
      </trkpt>
      <trkpt lat="42.44085" lon="0.06683">
        <ele>597.8</ele>
        <time>2016-07-31T10:30:02Z</time>
      </trkpt>
      <trkpt lat="42.44079" lon="0.06682">
        <ele>597.9</ele>
        <time>2016-07-31T10:30:03Z</time>
      </trkpt>
      <trkpt lat="42.44072" lon="0.06683">
        <ele>598</ele>
        <time>2016-07-31T10:30:04Z</time>
      </trkpt>
      <trkpt lat="42.44065" lon="0.06684">
        <ele>598</ele>
        <time>2016-07-31T10:30:05Z</time>
      </trkpt>
      <trkpt lat="42.44057" lon="0.06685">
        <ele>598</ele>
        <time>2016-07-31T10:30:06Z</time>
      </trkpt>
      <trkpt lat="42.4405" lon="0.06686">
        <ele>598</ele>
        <time>2016-07-31T10:30:07Z</time>
      </trkpt>
      <trkpt lat="42.44041" lon="0.06686">
        <ele>598.2</ele>
        <time>2016-07-31T10:30:08Z</time>
      </trkpt>
      <trkpt lat="42.44035" lon="0.06685">
        <ele>598.5</ele>
        <time>2016-07-31T10:30:09Z</time>
      </trkpt>
      <trkpt lat="42.44031" lon="0.06686">
        <ele>598.6</ele>
        <time>2016-07-31T10:30:10Z</time>
      </trkpt>
      <trkpt lat="42.44027" lon="0.06686">
        <ele>598.7</ele>
        <time>2016-07-31T10:30:11Z</time>
      </trkpt>
      <trkpt lat="42.44024" lon="0.06685">
        <ele>598.9</ele>
        <time>2016-07-31T10:30:12Z</time>
      </trkpt>
      <trkpt lat="42.44021" lon="0.06684">
        <ele>599.2</ele>
        <time>2016-07-31T10:30:13Z</time>
      </trkpt>
      <trkpt lat="42.44018" lon="0.06683">
        <ele>599.4</ele>
        <time>2016-07-31T10:30:14Z</time>
      </trkpt>
      <trkpt lat="42.44015" lon="0.06683">
        <ele>599.5</ele>
        <time>2016-07-31T10:30:15Z</time>
      </trkpt>
      <trkpt lat="42.44012" lon="0.06682">
        <ele>599.7</ele>
        <time>2016-07-31T10:30:16Z</time>
      </trkpt>
      <trkpt lat="42.44008" lon="0.06682">
        <ele>599.8</ele>
        <time>2016-07-31T10:30:17Z</time>
      </trkpt>
      <trkpt lat="42.44005" lon="0.06683">
        <ele>599.9</ele>
        <time>2016-07-31T10:30:18Z</time>
      </trkpt>
      <trkpt lat="42.44002" lon="0.06684">
        <ele>599.9</ele>
        <time>2016-07-31T10:30:19Z</time>
      </trkpt>
      <trkpt lat="42.43998" lon="0.06685">
        <ele>599.9</ele>
        <time>2016-07-31T10:30:20Z</time>
      </trkpt>
      <trkpt lat="42.43992" lon="0.06688">
        <ele>599.9</ele>
        <time>2016-07-31T10:30:21Z</time>
      </trkpt>
      <trkpt lat="42.43986" lon="0.06692">
        <ele>599.7</ele>
        <time>2016-07-31T10:30:22Z</time>
      </trkpt>
      <trkpt lat="42.43981" lon="0.06696">
        <ele>599.4</ele>
        <time>2016-07-31T10:30:23Z</time>
      </trkpt>
      <trkpt lat="42.43974" lon="0.06702">
        <ele>599.2</ele>
        <time>2016-07-31T10:30:24Z</time>
      </trkpt>
      <trkpt lat="42.43968" lon="0.06705">
        <ele>599</ele>
        <time>2016-07-31T10:30:25Z</time>
      </trkpt>
      <trkpt lat="42.43961" lon="0.06708">
        <ele>598.9</ele>
        <time>2016-07-31T10:30:26Z</time>
      </trkpt>
      <trkpt lat="42.43955" lon="0.06711">
        <ele>598.5</ele>
        <time>2016-07-31T10:30:27Z</time>
      </trkpt>
      <trkpt lat="42.43948" lon="0.06714">
        <ele>598</ele>
        <time>2016-07-31T10:30:28Z</time>
      </trkpt>
      <trkpt lat="42.43941" lon="0.06716">
        <ele>597.6</ele>
        <time>2016-07-31T10:30:29Z</time>
      </trkpt>
      <trkpt lat="42.43934" lon="0.06718">
        <ele>597.2</ele>
        <time>2016-07-31T10:30:30Z</time>
      </trkpt>
      <trkpt lat="42.43927" lon="0.0672">
        <ele>596.9</ele>
        <time>2016-07-31T10:30:31Z</time>
      </trkpt>
      <trkpt lat="42.4392" lon="0.06721">
        <ele>596.6</ele>
        <time>2016-07-31T10:30:32Z</time>
      </trkpt>
      <trkpt lat="42.43914" lon="0.06723">
        <ele>596.3</ele>
        <time>2016-07-31T10:30:33Z</time>
      </trkpt>
      <trkpt lat="42.43907" lon="0.06724">
        <ele>596.1</ele>
        <time>2016-07-31T10:30:34Z</time>
      </trkpt>
      <trkpt lat="42.43901" lon="0.06725">
        <ele>595.9</ele>
        <time>2016-07-31T10:30:35Z</time>
      </trkpt>
      <trkpt lat="42.43895" lon="0.06726">
        <ele>595.8</ele>
        <time>2016-07-31T10:30:36Z</time>
      </trkpt>
      <trkpt lat="42.43889" lon="0.06727">
        <ele>595.6</ele>
        <time>2016-07-31T10:30:37Z</time>
      </trkpt>
      <trkpt lat="42.43883" lon="0.06727">
        <ele>595.5</ele>
        <time>2016-07-31T10:30:38Z</time>
      </trkpt>
      <trkpt lat="42.43877" lon="0.06728">
        <ele>595.3</ele>
        <time>2016-07-31T10:30:39Z</time>
      </trkpt>
      <trkpt lat="42.43872" lon="0.0673">
        <ele>595.5</ele>
        <time>2016-07-31T10:30:40Z</time>
      </trkpt>
      <trkpt lat="42.43867" lon="0.06732">
        <ele>596.1</ele>
        <time>2016-07-31T10:30:41Z</time>
      </trkpt>
      <trkpt lat="42.43862" lon="0.06734">
        <ele>596.5</ele>
        <time>2016-07-31T10:30:42Z</time>
      </trkpt>
      <trkpt lat="42.43857" lon="0.06734">
        <ele>597.1</ele>
        <time>2016-07-31T10:30:43Z</time>
      </trkpt>
      <trkpt lat="42.43853" lon="0.06736">
        <ele>597.6</ele>
        <time>2016-07-31T10:30:44Z</time>
      </trkpt>
      <trkpt lat="42.43848" lon="0.06737">
        <ele>598.1</ele>
        <time>2016-07-31T10:30:45Z</time>
      </trkpt>
      <trkpt lat="42.43844" lon="0.06738">
        <ele>598.5</ele>
        <time>2016-07-31T10:30:46Z</time>
      </trkpt>
      <trkpt lat="42.4384" lon="0.06738">
        <ele>598.9</ele>
        <time>2016-07-31T10:30:47Z</time>
      </trkpt>
      <trkpt lat="42.43836" lon="0.06738">
        <ele>599.6</ele>
        <time>2016-07-31T10:30:48Z</time>
      </trkpt>
      <trkpt lat="42.43831" lon="0.06735">
        <ele>600.4</ele>
        <time>2016-07-31T10:30:49Z</time>
      </trkpt>
      <trkpt lat="42.43827" lon="0.0673">
        <ele>601.4</ele>
        <time>2016-07-31T10:30:50Z</time>
      </trkpt>
      <trkpt lat="42.43824" lon="0.06724">
        <ele>602.6</ele>
        <time>2016-07-31T10:30:51Z</time>
      </trkpt>
      <trkpt lat="42.43821" lon="0.06718">
        <ele>603.6</ele>
        <time>2016-07-31T10:30:52Z</time>
      </trkpt>
      <trkpt lat="42.43819" lon="0.06713">
        <ele>604.6</ele>
        <time>2016-07-31T10:30:53Z</time>
      </trkpt>
      <trkpt lat="42.43816" lon="0.06709">
        <ele>605.4</ele>
        <time>2016-07-31T10:30:54Z</time>
      </trkpt>
      <trkpt lat="42.43813" lon="0.06706">
        <ele>606.1</ele>
        <time>2016-07-31T10:30:55Z</time>
      </trkpt>
      <trkpt lat="42.4381" lon="0.06706">
        <ele>606.5</ele>
        <time>2016-07-31T10:30:56Z</time>
      </trkpt>
      <trkpt lat="42.43805" lon="0.06708">
        <ele>607.1</ele>
        <time>2016-07-31T10:30:57Z</time>
      </trkpt>
      <trkpt lat="42.43803" lon="0.06713">
        <ele>606.8</ele>
        <time>2016-07-31T10:30:58Z</time>
      </trkpt>
      <trkpt lat="42.43801" lon="0.06719">
        <ele>606.3</ele>
        <time>2016-07-31T10:30:59Z</time>
      </trkpt>
      <trkpt lat="42.438" lon="0.06727">
        <ele>605.5</ele>
        <time>2016-07-31T10:31:00Z</time>
      </trkpt>
      <trkpt lat="42.43798" lon="0.06734">
        <ele>604.9</ele>
        <time>2016-07-31T10:31:01Z</time>
      </trkpt>
      <trkpt lat="42.43796" lon="0.06741">
        <ele>604.1</ele>
        <time>2016-07-31T10:31:02Z</time>
      </trkpt>
      <trkpt lat="42.43794" lon="0.06747">
        <ele>603.5</ele>
        <time>2016-07-31T10:31:03Z</time>
      </trkpt>
      <trkpt lat="42.43792" lon="0.06754">
        <ele>602.9</ele>
        <time>2016-07-31T10:31:04Z</time>
      </trkpt>
      <trkpt lat="42.43789" lon="0.06759">
        <ele>603.1</ele>
        <time>2016-07-31T10:31:05Z</time>
      </trkpt>
      <trkpt lat="42.43787" lon="0.06763">
        <ele>603.4</ele>
        <time>2016-07-31T10:31:06Z</time>
      </trkpt>
      <trkpt lat="42.43784" lon="0.06765">
        <ele>604</ele>
        <time>2016-07-31T10:31:07Z</time>
      </trkpt>
      <trkpt lat="42.4378" lon="0.06767">
        <ele>605</ele>
        <time>2016-07-31T10:31:08Z</time>
      </trkpt>
      <trkpt lat="42.43775" lon="0.06769">
        <ele>606.1</ele>
        <time>2016-07-31T10:31:09Z</time>
      </trkpt>
      <trkpt lat="42.43771" lon="0.06771">
        <ele>607.1</ele>
        <time>2016-07-31T10:31:10Z</time>
      </trkpt>
      <trkpt lat="42.43767" lon="0.06773">
        <ele>608.2</ele>
        <time>2016-07-31T10:31:11Z</time>
      </trkpt>
      <trkpt lat="42.43762" lon="0.06774">
        <ele>609.6</ele>
        <time>2016-07-31T10:31:12Z</time>
      </trkpt>
      <trkpt lat="42.43758" lon="0.06776">
        <ele>610.7</ele>
        <time>2016-07-31T10:31:13Z</time>
      </trkpt>
      <trkpt lat="42.43753" lon="0.06779">
        <ele>611.8</ele>
        <time>2016-07-31T10:31:14Z</time>
      </trkpt>
      <trkpt lat="42.43748" lon="0.06783">
        <ele>612.7</ele>
        <time>2016-07-31T10:31:15Z</time>
      </trkpt>
      <trkpt lat="42.43744" lon="0.06787">
        <ele>613.5</ele>
        <time>2016-07-31T10:31:16Z</time>
      </trkpt>
      <trkpt lat="42.4374" lon="0.06791">
        <ele>614.2</ele>
        <time>2016-07-31T10:31:17Z</time>
      </trkpt>
      <trkpt lat="42.43737" lon="0.06795">
        <ele>614.9</ele>
        <time>2016-07-31T10:31:18Z</time>
      </trkpt>
      <trkpt lat="42.43734" lon="0.068">
        <ele>615.5</ele>
        <time>2016-07-31T10:31:19Z</time>
      </trkpt>
      <trkpt lat="42.4373" lon="0.06805">
        <ele>616.5</ele>
        <time>2016-07-31T10:31:20Z</time>
      </trkpt>
      <trkpt lat="42.43727" lon="0.06809">
        <ele>617.3</ele>
        <time>2016-07-31T10:31:21Z</time>
      </trkpt>
      <trkpt lat="42.43723" lon="0.06815">
        <ele>618</ele>
        <time>2016-07-31T10:31:22Z</time>
      </trkpt>
      <trkpt lat="42.4372" lon="0.0682">
        <ele>618.9</ele>
        <time>2016-07-31T10:31:23Z</time>
      </trkpt>
      <trkpt lat="42.43717" lon="0.06825">
        <ele>619.7</ele>
        <time>2016-07-31T10:31:24Z</time>
      </trkpt>
      <trkpt lat="42.43714" lon="0.0683">
        <ele>620.5</ele>
        <time>2016-07-31T10:31:25Z</time>
      </trkpt>
      <trkpt lat="42.43712" lon="0.06835">
        <ele>621.1</ele>
        <time>2016-07-31T10:31:26Z</time>
      </trkpt>
      <trkpt lat="42.43709" lon="0.0684">
        <ele>622</ele>
        <time>2016-07-31T10:31:27Z</time>
      </trkpt>
      <trkpt lat="42.43707" lon="0.06846">
        <ele>623</ele>
        <time>2016-07-31T10:31:28Z</time>
      </trkpt>
      <trkpt lat="42.43704" lon="0.06852">
        <ele>624.5</ele>
        <time>2016-07-31T10:31:29Z</time>
      </trkpt>
      <trkpt lat="42.43703" lon="0.06857">
        <ele>625.5</ele>
        <time>2016-07-31T10:31:30Z</time>
      </trkpt>
      <trkpt lat="42.43701" lon="0.06861">
        <ele>626.7</ele>
        <time>2016-07-31T10:31:31Z</time>
      </trkpt>
      <trkpt lat="42.43699" lon="0.06866">
        <ele>627.5</ele>
        <time>2016-07-31T10:31:32Z</time>
      </trkpt>
      <trkpt lat="42.43697" lon="0.06871">
        <ele>628.9</ele>
        <time>2016-07-31T10:31:33Z</time>
      </trkpt>
      <trkpt lat="42.43696" lon="0.06875">
        <ele>629.9</ele>
        <time>2016-07-31T10:31:34Z</time>
      </trkpt>
      <trkpt lat="42.43693" lon="0.06879">
        <ele>631.1</ele>
        <time>2016-07-31T10:31:35Z</time>
      </trkpt>
      <trkpt lat="42.43692" lon="0.06884">
        <ele>631.7</ele>
        <time>2016-07-31T10:31:36Z</time>
      </trkpt>
      <trkpt lat="42.4369" lon="0.06888">
        <ele>633</ele>
        <time>2016-07-31T10:31:37Z</time>
      </trkpt>
      <trkpt lat="42.43688" lon="0.06891">
        <ele>634</ele>
        <time>2016-07-31T10:31:38Z</time>
      </trkpt>
      <trkpt lat="42.43686" lon="0.06894">
        <ele>635.3</ele>
        <time>2016-07-31T10:31:39Z</time>
      </trkpt>
      <trkpt lat="42.43685" lon="0.06897">
        <ele>636.2</ele>
        <time>2016-07-31T10:31:40Z</time>
      </trkpt>
      <trkpt lat="42.43682" lon="0.06904">
        <ele>637.3</ele>
        <time>2016-07-31T10:31:42Z</time>
      </trkpt>
      <trkpt lat="42.43681" lon="0.0691">
        <ele>637.9</ele>
        <time>2016-07-31T10:31:44Z</time>
      </trkpt>
      <trkpt lat="42.4368" lon="0.06914">
        <ele>638.1</ele>
        <time>2016-07-31T10:31:45Z</time>
      </trkpt>
      <trkpt lat="42.4368" lon="0.06919">
        <ele>638.5</ele>
        <time>2016-07-31T10:31:46Z</time>
      </trkpt>
      <trkpt lat="42.43679" lon="0.06923">
        <ele>639</ele>
        <time>2016-07-31T10:31:47Z</time>
      </trkpt>
      <trkpt lat="42.43678" lon="0.06927">
        <ele>639.4</ele>
        <time>2016-07-31T10:31:48Z</time>
      </trkpt>
      <trkpt lat="42.43677" lon="0.06932">
        <ele>639.8</ele>
        <time>2016-07-31T10:31:49Z</time>
      </trkpt>
      <trkpt lat="42.43676" lon="0.06936">
        <ele>640.1</ele>
        <time>2016-07-31T10:31:50Z</time>
      </trkpt>
      <trkpt lat="42.43675" lon="0.0694">
        <ele>640.5</ele>
        <time>2016-07-31T10:31:51Z</time>
      </trkpt>
      <trkpt lat="42.43674" lon="0.06944">
        <ele>640.8</ele>
        <time>2016-07-31T10:31:52Z</time>
      </trkpt>
      <trkpt lat="42.43674" lon="0.06951">
        <ele>641.1</ele>
        <time>2016-07-31T10:31:54Z</time>
      </trkpt>
      <trkpt lat="42.43673" lon="0.06959">
        <ele>640.8</ele>
        <time>2016-07-31T10:31:56Z</time>
      </trkpt>
      <trkpt lat="42.43673" lon="0.06964">
        <ele>640.4</ele>
        <time>2016-07-31T10:31:58Z</time>
      </trkpt>
      <trkpt lat="42.43673" lon="0.06969">
        <ele>639.9</ele>
        <time>2016-07-31T10:32:00Z</time>
      </trkpt>
      <trkpt lat="42.43673" lon="0.06973">
        <ele>639.4</ele>
        <time>2016-07-31T10:32:02Z</time>
      </trkpt>
      <trkpt lat="42.43673" lon="0.06979">
        <ele>638.9</ele>
        <time>2016-07-31T10:32:04Z</time>
      </trkpt>
      <trkpt lat="42.43673" lon="0.06983">
        <ele>638.6</ele>
        <time>2016-07-31T10:32:05Z</time>
      </trkpt>
      <trkpt lat="42.43672" lon="0.06987">
        <ele>638.5</ele>
        <time>2016-07-31T10:32:06Z</time>
      </trkpt>
      <trkpt lat="42.43672" lon="0.06992">
        <ele>638.2</ele>
        <time>2016-07-31T10:32:07Z</time>
      </trkpt>
      <trkpt lat="42.43672" lon="0.06998">
        <ele>637.8</ele>
        <time>2016-07-31T10:32:08Z</time>
      </trkpt>
      <trkpt lat="42.43671" lon="0.07004">
        <ele>637.4</ele>
        <time>2016-07-31T10:32:09Z</time>
      </trkpt>
      <trkpt lat="42.4367" lon="0.07012">
        <ele>637.2</ele>
        <time>2016-07-31T10:32:10Z</time>
      </trkpt>
      <trkpt lat="42.43669" lon="0.07018">
        <ele>637.7</ele>
        <time>2016-07-31T10:32:11Z</time>
      </trkpt>
      <trkpt lat="42.43668" lon="0.07023">
        <ele>637.8</ele>
        <time>2016-07-31T10:32:12Z</time>
      </trkpt>
      <trkpt lat="42.43667" lon="0.07027">
        <ele>638</ele>
        <time>2016-07-31T10:32:13Z</time>
      </trkpt>
      <trkpt lat="42.43667" lon="0.07031">
        <ele>637.3</ele>
        <time>2016-07-31T10:32:14Z</time>
      </trkpt>
      <trkpt lat="42.43666" lon="0.07037">
        <ele>637.5</ele>
        <time>2016-07-31T10:32:16Z</time>
      </trkpt>
      <trkpt lat="42.43665" lon="0.07043">
        <ele>637.2</ele>
        <time>2016-07-31T10:32:18Z</time>
      </trkpt>
      <trkpt lat="42.43664" lon="0.07051">
        <ele>637</ele>
        <time>2016-07-31T10:32:20Z</time>
      </trkpt>
      <trkpt lat="42.43663" lon="0.07056">
        <ele>636.9</ele>
        <time>2016-07-31T10:32:21Z</time>
      </trkpt>
      <trkpt lat="42.43662" lon="0.07061">
        <ele>636.3</ele>
        <time>2016-07-31T10:32:22Z</time>
      </trkpt>
      <trkpt lat="42.43662" lon="0.07069">
        <ele>635</ele>
        <time>2016-07-31T10:32:23Z</time>
      </trkpt>
      <trkpt lat="42.43663" lon="0.07076">
        <ele>633.2</ele>
        <time>2016-07-31T10:32:24Z</time>
      </trkpt>
      <trkpt lat="42.43663" lon="0.07082">
        <ele>631.7</ele>
        <time>2016-07-31T10:32:25Z</time>
      </trkpt>
      <trkpt lat="42.43666" lon="0.07089">
        <ele>628.8</ele>
        <time>2016-07-31T10:32:26Z</time>
      </trkpt>
      <trkpt lat="42.43667" lon="0.07098">
        <ele>626.6</ele>
        <time>2016-07-31T10:32:27Z</time>
      </trkpt>
      <trkpt lat="42.43667" lon="0.07104">
        <ele>625.6</ele>
        <time>2016-07-31T10:32:28Z</time>
      </trkpt>
      <trkpt lat="42.43667" lon="0.07113">
        <ele>624.1</ele>
        <time>2016-07-31T10:32:29Z</time>
      </trkpt>
      <trkpt lat="42.4367" lon="0.07124">
        <ele>620.2</ele>
        <time>2016-07-31T10:32:30Z</time>
      </trkpt>
      <trkpt lat="42.43672" lon="0.07133">
        <ele>618.3</ele>
        <time>2016-07-31T10:32:31Z</time>
      </trkpt>
      <trkpt lat="42.43673" lon="0.07143">
        <ele>617.2</ele>
        <time>2016-07-31T10:32:32Z</time>
      </trkpt>
      <trkpt lat="42.43673" lon="0.07155">
        <ele>616</ele>
        <time>2016-07-31T10:32:33Z</time>
      </trkpt>
      <trkpt lat="42.43672" lon="0.07165">
        <ele>615.6</ele>
        <time>2016-07-31T10:32:34Z</time>
      </trkpt>
      <trkpt lat="42.4367" lon="0.07174">
        <ele>615.9</ele>
        <time>2016-07-31T10:32:35Z</time>
      </trkpt>
      <trkpt lat="42.43668" lon="0.07184">
        <ele>615.6</ele>
        <time>2016-07-31T10:32:36Z</time>
      </trkpt>
      <trkpt lat="42.43666" lon="0.07193">
        <ele>615.9</ele>
        <time>2016-07-31T10:32:37Z</time>
      </trkpt>
      <trkpt lat="42.43662" lon="0.072">
        <ele>616.9</ele>
        <time>2016-07-31T10:32:38Z</time>
      </trkpt>
      <trkpt lat="42.43657" lon="0.07207">
        <ele>618.2</ele>
        <time>2016-07-31T10:32:39Z</time>
      </trkpt>
      <trkpt lat="42.43655" lon="0.07214">
        <ele>618.5</ele>
        <time>2016-07-31T10:32:40Z</time>
      </trkpt>
      <trkpt lat="42.43654" lon="0.07222">
        <ele>618</ele>
        <time>2016-07-31T10:32:41Z</time>
      </trkpt>
      <trkpt lat="42.43655" lon="0.0723">
        <ele>617</ele>
        <time>2016-07-31T10:32:42Z</time>
      </trkpt>
      <trkpt lat="42.43657" lon="0.07235">
        <ele>615.6</ele>
        <time>2016-07-31T10:32:43Z</time>
      </trkpt>
      <trkpt lat="42.43656" lon="0.07242">
        <ele>615.5</ele>
        <time>2016-07-31T10:32:44Z</time>
      </trkpt>
      <trkpt lat="42.43653" lon="0.0725">
        <ele>615.9</ele>
        <time>2016-07-31T10:32:45Z</time>
      </trkpt>
      <trkpt lat="42.43653" lon="0.07258">
        <ele>615.3</ele>
        <time>2016-07-31T10:32:46Z</time>
      </trkpt>
      <trkpt lat="42.43653" lon="0.07264">
        <ele>614.8</ele>
        <time>2016-07-31T10:32:47Z</time>
      </trkpt>
      <trkpt lat="42.43652" lon="0.0727">
        <ele>614.8</ele>
        <time>2016-07-31T10:32:48Z</time>
      </trkpt>
      <trkpt lat="42.43649" lon="0.07276">
        <ele>615.3</ele>
        <time>2016-07-31T10:32:49Z</time>
      </trkpt>
      <trkpt lat="42.43648" lon="0.07283">
        <ele>615.5</ele>
        <time>2016-07-31T10:32:50Z</time>
      </trkpt>
      <trkpt lat="42.43645" lon="0.07289">
        <ele>615.9</ele>
        <time>2016-07-31T10:32:51Z</time>
      </trkpt>
      <trkpt lat="42.43642" lon="0.07296">
        <ele>616.7</ele>
        <time>2016-07-31T10:32:52Z</time>
      </trkpt>
      <trkpt lat="42.43642" lon="0.07302">
        <ele>616.3</ele>
        <time>2016-07-31T10:32:53Z</time>
      </trkpt>
      <trkpt lat="42.4364" lon="0.07308">
        <ele>616.2</ele>
        <time>2016-07-31T10:32:54Z</time>
      </trkpt>
      <trkpt lat="42.43638" lon="0.07313">
        <ele>616.5</ele>
        <time>2016-07-31T10:32:55Z</time>
      </trkpt>
      <trkpt lat="42.43637" lon="0.0732">
        <ele>616.3</ele>
        <time>2016-07-31T10:32:56Z</time>
      </trkpt>
      <trkpt lat="42.43635" lon="0.07327">
        <ele>616.2</ele>
        <time>2016-07-31T10:32:57Z</time>
      </trkpt>
      <trkpt lat="42.43633" lon="0.07334">
        <ele>616</ele>
        <time>2016-07-31T10:32:58Z</time>
      </trkpt>
      <trkpt lat="42.43631" lon="0.07341">
        <ele>615.9</ele>
        <time>2016-07-31T10:32:59Z</time>
      </trkpt>
      <trkpt lat="42.4363" lon="0.07349">
        <ele>615.6</ele>
        <time>2016-07-31T10:33:00Z</time>
      </trkpt>
      <trkpt lat="42.43628" lon="0.07356">
        <ele>615.5</ele>
        <time>2016-07-31T10:33:01Z</time>
      </trkpt>
      <trkpt lat="42.43625" lon="0.07362">
        <ele>615.7</ele>
        <time>2016-07-31T10:33:02Z</time>
      </trkpt>
      <trkpt lat="42.43623" lon="0.07369">
        <ele>615.1</ele>
        <time>2016-07-31T10:33:03Z</time>
      </trkpt>
      <trkpt lat="42.43621" lon="0.07376">
        <ele>614.5</ele>
        <time>2016-07-31T10:33:04Z</time>
      </trkpt>
      <trkpt lat="42.43619" lon="0.07383">
        <ele>613.7</ele>
        <time>2016-07-31T10:33:05Z</time>
      </trkpt>
      <trkpt lat="42.43617" lon="0.07391">
        <ele>612.6</ele>
        <time>2016-07-31T10:33:06Z</time>
      </trkpt>
      <trkpt lat="42.43616" lon="0.07398">
        <ele>611.3</ele>
        <time>2016-07-31T10:33:07Z</time>
      </trkpt>
      <trkpt lat="42.43615" lon="0.07405">
        <ele>610.3</ele>
        <time>2016-07-31T10:33:08Z</time>
      </trkpt>
      <trkpt lat="42.43614" lon="0.07413">
        <ele>609.1</ele>
        <time>2016-07-31T10:33:09Z</time>
      </trkpt>
      <trkpt lat="42.43613" lon="0.07421">
        <ele>607.8</ele>
        <time>2016-07-31T10:33:10Z</time>
      </trkpt>
      <trkpt lat="42.43613" lon="0.07431">
        <ele>605.9</ele>
        <time>2016-07-31T10:33:11Z</time>
      </trkpt>
      <trkpt lat="42.43613" lon="0.0744">
        <ele>604.4</ele>
        <time>2016-07-31T10:33:12Z</time>
      </trkpt>
      <trkpt lat="42.43612" lon="0.07449">
        <ele>602.9</ele>
        <time>2016-07-31T10:33:13Z</time>
      </trkpt>
      <trkpt lat="42.43611" lon="0.07457">
        <ele>601.7</ele>
        <time>2016-07-31T10:33:14Z</time>
      </trkpt>
      <trkpt lat="42.43609" lon="0.07465">
        <ele>600.7</ele>
        <time>2016-07-31T10:33:15Z</time>
      </trkpt>
      <trkpt lat="42.43608" lon="0.07473">
        <ele>599.6</ele>
        <time>2016-07-31T10:33:16Z</time>
      </trkpt>
      <trkpt lat="42.43607" lon="0.07481">
        <ele>598.6</ele>
        <time>2016-07-31T10:33:17Z</time>
      </trkpt>
      <trkpt lat="42.43606" lon="0.07488">
        <ele>597.7</ele>
        <time>2016-07-31T10:33:18Z</time>
      </trkpt>
      <trkpt lat="42.43605" lon="0.07496">
        <ele>596.6</ele>
        <time>2016-07-31T10:33:19Z</time>
      </trkpt>
      <trkpt lat="42.43603" lon="0.07503">
        <ele>595.7</ele>
        <time>2016-07-31T10:33:20Z</time>
      </trkpt>
      <trkpt lat="42.43601" lon="0.07511">
        <ele>594.8</ele>
        <time>2016-07-31T10:33:21Z</time>
      </trkpt>
      <trkpt lat="42.43599" lon="0.07518">
        <ele>593.6</ele>
        <time>2016-07-31T10:33:22Z</time>
      </trkpt>
      <trkpt lat="42.43598" lon="0.07526">
        <ele>592.4</ele>
        <time>2016-07-31T10:33:23Z</time>
      </trkpt>
      <trkpt lat="42.43597" lon="0.07533">
        <ele>591.2</ele>
        <time>2016-07-31T10:33:24Z</time>
      </trkpt>
      <trkpt lat="42.43597" lon="0.0754">
        <ele>590</ele>
        <time>2016-07-31T10:33:25Z</time>
      </trkpt>
      <trkpt lat="42.43596" lon="0.07547">
        <ele>589.4</ele>
        <time>2016-07-31T10:33:26Z</time>
      </trkpt>
      <trkpt lat="42.43594" lon="0.07554">
        <ele>589</ele>
        <time>2016-07-31T10:33:27Z</time>
      </trkpt>
      <trkpt lat="42.43593" lon="0.0756">
        <ele>588.6</ele>
        <time>2016-07-31T10:33:28Z</time>
      </trkpt>
      <trkpt lat="42.43591" lon="0.07566">
        <ele>588.2</ele>
        <time>2016-07-31T10:33:29Z</time>
      </trkpt>
      <trkpt lat="42.4359" lon="0.07571">
        <ele>587.9</ele>
        <time>2016-07-31T10:33:30Z</time>
      </trkpt>
      <trkpt lat="42.43589" lon="0.07576">
        <ele>587.5</ele>
        <time>2016-07-31T10:33:31Z</time>
      </trkpt>
      <trkpt lat="42.43587" lon="0.07581">
        <ele>587.2</ele>
        <time>2016-07-31T10:33:32Z</time>
      </trkpt>
      <trkpt lat="42.43585" lon="0.07585">
        <ele>587</ele>
        <time>2016-07-31T10:33:33Z</time>
      </trkpt>
      <trkpt lat="42.43583" lon="0.07588">
        <ele>586.9</ele>
        <time>2016-07-31T10:33:34Z</time>
      </trkpt>
      <trkpt lat="42.4358" lon="0.07589">
        <ele>587</ele>
        <time>2016-07-31T10:33:35Z</time>
      </trkpt>
      <trkpt lat="42.43578" lon="0.07591">
        <ele>586.9</ele>
        <time>2016-07-31T10:33:36Z</time>
      </trkpt>
      <trkpt lat="42.43575" lon="0.07593">
        <ele>586.9</ele>
        <time>2016-07-31T10:33:37Z</time>
      </trkpt>
      <trkpt lat="42.43572" lon="0.07594">
        <ele>586.9</ele>
        <time>2016-07-31T10:33:38Z</time>
      </trkpt>
      <trkpt lat="42.43569" lon="0.07596">
        <ele>586.9</ele>
        <time>2016-07-31T10:33:40Z</time>
      </trkpt>
      <trkpt lat="42.43565" lon="0.07601">
        <ele>586.6</ele>
        <time>2016-07-31T10:33:42Z</time>
      </trkpt>
      <trkpt lat="42.43564" lon="0.07604">
        <ele>586.4</ele>
        <time>2016-07-31T10:33:43Z</time>
      </trkpt>
      <trkpt lat="42.43563" lon="0.07609">
        <ele>585.9</ele>
        <time>2016-07-31T10:33:44Z</time>
      </trkpt>
      <trkpt lat="42.43562" lon="0.07614">
        <ele>585.4</ele>
        <time>2016-07-31T10:33:45Z</time>
      </trkpt>
      <trkpt lat="42.43562" lon="0.07619">
        <ele>584.9</ele>
        <time>2016-07-31T10:33:46Z</time>
      </trkpt>
      <trkpt lat="42.43561" lon="0.07624">
        <ele>584.4</ele>
        <time>2016-07-31T10:33:47Z</time>
      </trkpt>
      <trkpt lat="42.43561" lon="0.0763">
        <ele>584.3</ele>
        <time>2016-07-31T10:33:48Z</time>
      </trkpt>
      <trkpt lat="42.4356" lon="0.07635">
        <ele>584.4</ele>
        <time>2016-07-31T10:33:49Z</time>
      </trkpt>
      <trkpt lat="42.4356" lon="0.0764">
        <ele>584.4</ele>
        <time>2016-07-31T10:33:50Z</time>
      </trkpt>
      <trkpt lat="42.43559" lon="0.07644">
        <ele>584.4</ele>
        <time>2016-07-31T10:33:51Z</time>
      </trkpt>
      <trkpt lat="42.43559" lon="0.07648">
        <ele>584.4</ele>
        <time>2016-07-31T10:33:52Z</time>
      </trkpt>
      <trkpt lat="42.43558" lon="0.07652">
        <ele>584.5</ele>
        <time>2016-07-31T10:33:53Z</time>
      </trkpt>
      <trkpt lat="42.43557" lon="0.07655">
        <ele>584.5</ele>
        <time>2016-07-31T10:33:54Z</time>
      </trkpt>
      <trkpt lat="42.43555" lon="0.07658">
        <ele>584.6</ele>
        <time>2016-07-31T10:33:55Z</time>
      </trkpt>
      <trkpt lat="42.43553" lon="0.07661">
        <ele>584.6</ele>
        <time>2016-07-31T10:33:56Z</time>
      </trkpt>
      <trkpt lat="42.43551" lon="0.07664">
        <ele>584.7</ele>
        <time>2016-07-31T10:33:57Z</time>
      </trkpt>
      <trkpt lat="42.43549" lon="0.07666">
        <ele>584.8</ele>
        <time>2016-07-31T10:33:58Z</time>
      </trkpt>
      <trkpt lat="42.43547" lon="0.07668">
        <ele>584.9</ele>
        <time>2016-07-31T10:33:59Z</time>
      </trkpt>
      <trkpt lat="42.43544" lon="0.07671">
        <ele>584.9</ele>
        <time>2016-07-31T10:34:00Z</time>
      </trkpt>
      <trkpt lat="42.43541" lon="0.07673">
        <ele>585</ele>
        <time>2016-07-31T10:34:01Z</time>
      </trkpt>
      <trkpt lat="42.43538" lon="0.07676">
        <ele>585</ele>
        <time>2016-07-31T10:34:02Z</time>
      </trkpt>
      <trkpt lat="42.43535" lon="0.07678">
        <ele>585</ele>
        <time>2016-07-31T10:34:03Z</time>
      </trkpt>
      <trkpt lat="42.43532" lon="0.07681">
        <ele>585</ele>
        <time>2016-07-31T10:34:04Z</time>
      </trkpt>
      <trkpt lat="42.4353" lon="0.07683">
        <ele>585</ele>
        <time>2016-07-31T10:34:05Z</time>
      </trkpt>
      <trkpt lat="42.43527" lon="0.07686">
        <ele>585</ele>
        <time>2016-07-31T10:34:06Z</time>
      </trkpt>
      <trkpt lat="42.43525" lon="0.07688">
        <ele>585</ele>
        <time>2016-07-31T10:34:07Z</time>
      </trkpt>
      <trkpt lat="42.43523" lon="0.07691">
        <ele>585</ele>
        <time>2016-07-31T10:34:08Z</time>
      </trkpt>
      <trkpt lat="42.43521" lon="0.07694">
        <ele>584.9</ele>
        <time>2016-07-31T10:34:09Z</time>
      </trkpt>
      <trkpt lat="42.43519" lon="0.07697">
        <ele>584.9</ele>
        <time>2016-07-31T10:34:10Z</time>
      </trkpt>
      <trkpt lat="42.43517" lon="0.077">
        <ele>584.8</ele>
        <time>2016-07-31T10:34:11Z</time>
      </trkpt>
      <trkpt lat="42.43515" lon="0.07703">
        <ele>584.8</ele>
        <time>2016-07-31T10:34:12Z</time>
      </trkpt>
      <trkpt lat="42.43513" lon="0.07706">
        <ele>584.7</ele>
        <time>2016-07-31T10:34:13Z</time>
      </trkpt>
      <trkpt lat="42.43511" lon="0.0771">
        <ele>584.6</ele>
        <time>2016-07-31T10:34:14Z</time>
      </trkpt>
      <trkpt lat="42.43509" lon="0.07713">
        <ele>584.6</ele>
        <time>2016-07-31T10:34:15Z</time>
      </trkpt>
      <trkpt lat="42.43508" lon="0.07717">
        <ele>584.5</ele>
        <time>2016-07-31T10:34:16Z</time>
      </trkpt>
      <trkpt lat="42.43505" lon="0.07722">
        <ele>584.4</ele>
        <time>2016-07-31T10:34:18Z</time>
      </trkpt>
      <trkpt lat="42.43504" lon="0.07726">
        <ele>584.3</ele>
        <time>2016-07-31T10:34:20Z</time>
      </trkpt>
      <trkpt lat="42.43503" lon="0.07731">
        <ele>584.3</ele>
        <time>2016-07-31T10:34:22Z</time>
      </trkpt>
      <trkpt lat="42.43501" lon="0.07735">
        <ele>584.2</ele>
        <time>2016-07-31T10:34:24Z</time>
      </trkpt>
      <trkpt lat="42.435" lon="0.0774">
        <ele>584.1</ele>
        <time>2016-07-31T10:34:26Z</time>
      </trkpt>
      <trkpt lat="42.43501" lon="0.07745">
        <ele>584.1</ele>
        <time>2016-07-31T10:34:28Z</time>
      </trkpt>
      <trkpt lat="42.435" lon="0.0775">
        <ele>584</ele>
        <time>2016-07-31T10:34:30Z</time>
      </trkpt>
      <trkpt lat="42.435" lon="0.07757">
        <ele>583.9</ele>
        <time>2016-07-31T10:34:32Z</time>
      </trkpt>
      <trkpt lat="42.435" lon="0.07761">
        <ele>583.9</ele>
        <time>2016-07-31T10:34:33Z</time>
      </trkpt>
      <trkpt lat="42.43499" lon="0.07765">
        <ele>583.8</ele>
        <time>2016-07-31T10:34:34Z</time>
      </trkpt>
      <trkpt lat="42.43499" lon="0.0777">
        <ele>583.7</ele>
        <time>2016-07-31T10:34:35Z</time>
      </trkpt>
      <trkpt lat="42.43499" lon="0.07774">
        <ele>583.7</ele>
        <time>2016-07-31T10:34:36Z</time>
      </trkpt>
      <trkpt lat="42.43499" lon="0.0778">
        <ele>583.6</ele>
        <time>2016-07-31T10:34:38Z</time>
      </trkpt>
      <trkpt lat="42.43502" lon="0.0778">
        <ele>583.7</ele>
        <time>2016-07-31T10:34:40Z</time>
      </trkpt>
      <trkpt lat="42.43505" lon="0.07774">
        <ele>583.9</ele>
        <time>2016-07-31T10:34:42Z</time>
      </trkpt>
      <trkpt lat="42.43505" lon="0.0777">
        <ele>583.9</ele>
        <time>2016-07-31T10:34:43Z</time>
      </trkpt>
      <trkpt lat="42.43505" lon="0.07766">
        <ele>584</ele>
        <time>2016-07-31T10:34:44Z</time>
      </trkpt>
      <trkpt lat="42.43505" lon="0.07762">
        <ele>584</ele>
        <time>2016-07-31T10:34:45Z</time>
      </trkpt>
      <trkpt lat="42.43505" lon="0.07759">
        <ele>584</ele>
        <time>2016-07-31T10:34:46Z</time>
      </trkpt>
      <trkpt lat="42.43505" lon="0.07752">
        <ele>584.1</ele>
        <time>2016-07-31T10:34:48Z</time>
      </trkpt>
      <trkpt lat="42.43506" lon="0.07747">
        <ele>584.2</ele>
        <time>2016-07-31T10:34:50Z</time>
      </trkpt>
      <trkpt lat="42.43506" lon="0.07743">
        <ele>584.2</ele>
        <time>2016-07-31T10:34:52Z</time>
      </trkpt>
      <trkpt lat="42.43506" lon="0.07738">
        <ele>584.3</ele>
        <time>2016-07-31T10:34:54Z</time>
      </trkpt>
      <trkpt lat="42.43507" lon="0.07734">
        <ele>584.3</ele>
        <time>2016-07-31T10:34:57Z</time>
      </trkpt>
      <trkpt lat="42.43509" lon="0.0773">
        <ele>584.4</ele>
        <time>2016-07-31T10:35:00Z</time>
      </trkpt>
      <trkpt lat="42.4351" lon="0.07726">
        <ele>584.5</ele>
        <time>2016-07-31T10:35:03Z</time>
      </trkpt>
      <trkpt lat="42.43512" lon="0.07724">
        <ele>584.5</ele>
        <time>2016-07-31T10:35:06Z</time>
      </trkpt>
      <trkpt lat="42.43515" lon="0.07721">
        <ele>584.6</ele>
        <time>2016-07-31T10:35:09Z</time>
      </trkpt>
      <trkpt lat="42.43515" lon="0.07717">
        <ele>584.6</ele>
        <time>2016-07-31T10:35:17Z</time>
      </trkpt>
      <trkpt lat="42.43514" lon="0.07713">
        <ele>584.6</ele>
        <time>2016-07-31T10:37:42Z</time>
      </trkpt>
      <trkpt lat="42.43516" lon="0.07711">
        <ele>584.7</ele>
        <time>2016-07-31T10:37:44Z</time>
      </trkpt>
      <trkpt lat="42.43519" lon="0.07707">
        <ele>584.7</ele>
        <time>2016-07-31T10:37:46Z</time>
      </trkpt>
      <trkpt lat="42.43522" lon="0.07704">
        <ele>584.8</ele>
        <time>2016-07-31T10:37:48Z</time>
      </trkpt>
      <trkpt lat="42.43527" lon="0.07703">
        <ele>584.9</ele>
        <time>2016-07-31T10:37:50Z</time>
      </trkpt>
      <trkpt lat="42.43531" lon="0.07703">
        <ele>584.9</ele>
        <time>2016-07-31T10:37:52Z</time>
      </trkpt>
      <trkpt lat="42.43533" lon="0.07707">
        <ele>584.9</ele>
        <time>2016-07-31T10:38:00Z</time>
      </trkpt>
      <trkpt lat="42.43534" lon="0.0771">
        <ele>584.9</ele>
        <time>2016-07-31T10:38:06Z</time>
      </trkpt>
      <trkpt lat="42.43538" lon="0.0771">
        <ele>585</ele>
        <time>2016-07-31T10:38:13Z</time>
      </trkpt>
      <trkpt lat="42.4354" lon="0.0771">
        <ele>585</ele>
        <time>2016-07-31T10:38:22Z</time>
      </trkpt>
      <trkpt lat="42.43538" lon="0.07707">
        <ele>585</ele>
        <time>2016-07-31T10:38:27Z</time>
      </trkpt>
      <trkpt lat="42.43535" lon="0.07707">
        <ele>584.9</ele>
        <time>2016-07-31T10:38:30Z</time>
      </trkpt>
      <trkpt lat="42.43532" lon="0.07707">
        <ele>584.9</ele>
        <time>2016-07-31T10:38:33Z</time>
      </trkpt>
      <trkpt lat="42.43529" lon="0.07705">
        <ele>584.9</ele>
        <time>2016-07-31T10:38:35Z</time>
      </trkpt>
      <trkpt lat="42.43525" lon="0.07701">
        <ele>584.9</ele>
        <time>2016-07-31T10:38:37Z</time>
      </trkpt>
      <trkpt lat="42.43524" lon="0.07694">
        <ele>584.9</ele>
        <time>2016-07-31T10:38:39Z</time>
      </trkpt>
      <trkpt lat="42.43527" lon="0.0769">
        <ele>585</ele>
        <time>2016-07-31T10:38:40Z</time>
      </trkpt>
      <trkpt lat="42.4353" lon="0.07687">
        <ele>585</ele>
        <time>2016-07-31T10:38:41Z</time>
      </trkpt>
      <trkpt lat="42.43533" lon="0.07684">
        <ele>585</ele>
        <time>2016-07-31T10:38:42Z</time>
      </trkpt>
      <trkpt lat="42.43537" lon="0.07682">
        <ele>585</ele>
        <time>2016-07-31T10:38:43Z</time>
      </trkpt>
      <trkpt lat="42.4354" lon="0.07679">
        <ele>585</ele>
        <time>2016-07-31T10:38:44Z</time>
      </trkpt>
      <trkpt lat="42.43544" lon="0.07676">
        <ele>584.9</ele>
        <time>2016-07-31T10:38:45Z</time>
      </trkpt>
      <trkpt lat="42.43547" lon="0.07674">
        <ele>584.9</ele>
        <time>2016-07-31T10:38:46Z</time>
      </trkpt>
      <trkpt lat="42.4355" lon="0.07671">
        <ele>584.8</ele>
        <time>2016-07-31T10:38:47Z</time>
      </trkpt>
      <trkpt lat="42.43553" lon="0.07667">
        <ele>584.7</ele>
        <time>2016-07-31T10:38:48Z</time>
      </trkpt>
      <trkpt lat="42.43555" lon="0.07664">
        <ele>584.6</ele>
        <time>2016-07-31T10:38:49Z</time>
      </trkpt>
      <trkpt lat="42.43558" lon="0.0766">
        <ele>584.5</ele>
        <time>2016-07-31T10:38:50Z</time>
      </trkpt>
      <trkpt lat="42.4356" lon="0.07656">
        <ele>584.4</ele>
        <time>2016-07-31T10:38:51Z</time>
      </trkpt>
      <trkpt lat="42.43562" lon="0.07652">
        <ele>584.4</ele>
        <time>2016-07-31T10:38:52Z</time>
      </trkpt>
      <trkpt lat="42.43564" lon="0.07648">
        <ele>584.3</ele>
        <time>2016-07-31T10:38:53Z</time>
      </trkpt>
      <trkpt lat="42.43566" lon="0.07645">
        <ele>584.2</ele>
        <time>2016-07-31T10:38:54Z</time>
      </trkpt>
      <trkpt lat="42.43568" lon="0.07643">
        <ele>584.1</ele>
        <time>2016-07-31T10:38:55Z</time>
      </trkpt>
      <trkpt lat="42.43573" lon="0.0764">
        <ele>584</ele>
        <time>2016-07-31T10:38:57Z</time>
      </trkpt>
      <trkpt lat="42.43576" lon="0.07641">
        <ele>583.8</ele>
        <time>2016-07-31T10:38:59Z</time>
      </trkpt>
      <trkpt lat="42.43579" lon="0.07643">
        <ele>583.8</ele>
        <time>2016-07-31T10:39:02Z</time>
      </trkpt>
      <trkpt lat="42.43575" lon="0.07642">
        <ele>583.9</ele>
        <time>2016-07-31T10:39:28Z</time>
      </trkpt>
      <trkpt lat="42.43573" lon="0.07638">
        <ele>583.9</ele>
        <time>2016-07-31T10:39:30Z</time>
      </trkpt>
      <trkpt lat="42.43571" lon="0.07635">
        <ele>584</ele>
        <time>2016-07-31T10:39:32Z</time>
      </trkpt>
      <trkpt lat="42.43568" lon="0.07634">
        <ele>584.1</ele>
        <time>2016-07-31T10:39:34Z</time>
      </trkpt>
      <trkpt lat="42.43564" lon="0.07636">
        <ele>584.2</ele>
        <time>2016-07-31T10:39:36Z</time>
      </trkpt>
      <trkpt lat="42.4356" lon="0.0764">
        <ele>584.4</ele>
        <time>2016-07-31T10:39:38Z</time>
      </trkpt>
      <trkpt lat="42.43559" lon="0.07643">
        <ele>584.4</ele>
        <time>2016-07-31T10:39:39Z</time>
      </trkpt>
      <trkpt lat="42.43557" lon="0.07647">
        <ele>584.5</ele>
        <time>2016-07-31T10:39:40Z</time>
      </trkpt>
      <trkpt lat="42.43556" lon="0.07651">
        <ele>584.5</ele>
        <time>2016-07-31T10:39:41Z</time>
      </trkpt>
      <trkpt lat="42.43554" lon="0.07654">
        <ele>584.6</ele>
        <time>2016-07-31T10:39:42Z</time>
      </trkpt>
      <trkpt lat="42.43552" lon="0.07659">
        <ele>584.7</ele>
        <time>2016-07-31T10:39:44Z</time>
      </trkpt>
      <trkpt lat="42.43552" lon="0.07663">
        <ele>584.7</ele>
        <time>2016-07-31T10:39:46Z</time>
      </trkpt>
      <trkpt lat="42.43557" lon="0.07662">
        <ele>584.5</ele>
        <time>2016-07-31T10:39:48Z</time>
      </trkpt>
      <trkpt lat="42.43559" lon="0.0766">
        <ele>584.5</ele>
        <time>2016-07-31T10:39:49Z</time>
      </trkpt>
      <trkpt lat="42.43561" lon="0.07656">
        <ele>584.4</ele>
        <time>2016-07-31T10:39:50Z</time>
      </trkpt>
      <trkpt lat="42.43562" lon="0.07652">
        <ele>584.3</ele>
        <time>2016-07-31T10:39:51Z</time>
      </trkpt>
      <trkpt lat="42.43564" lon="0.07648">
        <ele>584.3</ele>
        <time>2016-07-31T10:39:52Z</time>
      </trkpt>
      <trkpt lat="42.43565" lon="0.07645">
        <ele>584.2</ele>
        <time>2016-07-31T10:39:53Z</time>
      </trkpt>
      <trkpt lat="42.43568" lon="0.0764">
        <ele>584.1</ele>
        <time>2016-07-31T10:39:55Z</time>
      </trkpt>
      <trkpt lat="42.43571" lon="0.0764">
        <ele>584</ele>
        <time>2016-07-31T10:39:57Z</time>
      </trkpt>
      <trkpt lat="42.43575" lon="0.07641">
        <ele>583.9</ele>
        <time>2016-07-31T10:39:59Z</time>
      </trkpt>
      <trkpt lat="42.43578" lon="0.07642">
        <ele>583.8</ele>
        <time>2016-07-31T10:40:02Z</time>
      </trkpt>
      <trkpt lat="42.43575" lon="0.07637">
        <ele>583.9</ele>
        <time>2016-07-31T10:45:35Z</time>
      </trkpt>
      <trkpt lat="42.4357" lon="0.07634">
        <ele>584</ele>
        <time>2016-07-31T10:45:37Z</time>
      </trkpt>
      <trkpt lat="42.43565" lon="0.07635">
        <ele>584.2</ele>
        <time>2016-07-31T10:45:39Z</time>
      </trkpt>
      <trkpt lat="42.43562" lon="0.07638">
        <ele>584.3</ele>
        <time>2016-07-31T10:45:40Z</time>
      </trkpt>
      <trkpt lat="42.4356" lon="0.07641">
        <ele>584.4</ele>
        <time>2016-07-31T10:45:41Z</time>
      </trkpt>
      <trkpt lat="42.43558" lon="0.07645">
        <ele>584.5</ele>
        <time>2016-07-31T10:45:42Z</time>
      </trkpt>
      <trkpt lat="42.43556" lon="0.07649">
        <ele>584.5</ele>
        <time>2016-07-31T10:45:43Z</time>
      </trkpt>
      <trkpt lat="42.43554" lon="0.07653">
        <ele>584.6</ele>
        <time>2016-07-31T10:45:44Z</time>
      </trkpt>
      <trkpt lat="42.43552" lon="0.07657">
        <ele>584.7</ele>
        <time>2016-07-31T10:45:45Z</time>
      </trkpt>
      <trkpt lat="42.4355" lon="0.0766">
        <ele>584.8</ele>
        <time>2016-07-31T10:45:46Z</time>
      </trkpt>
      <trkpt lat="42.43547" lon="0.07663">
        <ele>584.8</ele>
        <time>2016-07-31T10:45:47Z</time>
      </trkpt>
      <trkpt lat="42.43544" lon="0.07666">
        <ele>584.9</ele>
        <time>2016-07-31T10:45:48Z</time>
      </trkpt>
      <trkpt lat="42.43541" lon="0.07669">
        <ele>585</ele>
        <time>2016-07-31T10:45:49Z</time>
      </trkpt>
      <trkpt lat="42.43539" lon="0.07673">
        <ele>585</ele>
        <time>2016-07-31T10:45:50Z</time>
      </trkpt>
      <trkpt lat="42.43536" lon="0.07676">
        <ele>585</ele>
        <time>2016-07-31T10:45:51Z</time>
      </trkpt>
      <trkpt lat="42.43532" lon="0.0768">
        <ele>585</ele>
        <time>2016-07-31T10:45:52Z</time>
      </trkpt>
      <trkpt lat="42.43529" lon="0.07684">
        <ele>585</ele>
        <time>2016-07-31T10:45:53Z</time>
      </trkpt>
      <trkpt lat="42.43526" lon="0.07687">
        <ele>585</ele>
        <time>2016-07-31T10:45:54Z</time>
      </trkpt>
      <trkpt lat="42.43523" lon="0.07691">
        <ele>585</ele>
        <time>2016-07-31T10:45:55Z</time>
      </trkpt>
      <trkpt lat="42.4352" lon="0.07695">
        <ele>584.9</ele>
        <time>2016-07-31T10:45:56Z</time>
      </trkpt>
      <trkpt lat="42.43517" lon="0.07699">
        <ele>584.8</ele>
        <time>2016-07-31T10:45:57Z</time>
      </trkpt>
      <trkpt lat="42.43514" lon="0.07704">
        <ele>584.7</ele>
        <time>2016-07-31T10:45:58Z</time>
      </trkpt>
      <trkpt lat="42.43512" lon="0.0771">
        <ele>584.6</ele>
        <time>2016-07-31T10:45:59Z</time>
      </trkpt>
      <trkpt lat="42.4351" lon="0.07715">
        <ele>584.6</ele>
        <time>2016-07-31T10:46:00Z</time>
      </trkpt>
      <trkpt lat="42.43507" lon="0.0772">
        <ele>584.5</ele>
        <time>2016-07-31T10:46:01Z</time>
      </trkpt>
      <trkpt lat="42.43504" lon="0.07725">
        <ele>584.4</ele>
        <time>2016-07-31T10:46:02Z</time>
      </trkpt>
      <trkpt lat="42.43501" lon="0.0773">
        <ele>584.3</ele>
        <time>2016-07-31T10:46:03Z</time>
      </trkpt>
      <trkpt lat="42.43498" lon="0.07734">
        <ele>584.2</ele>
        <time>2016-07-31T10:46:04Z</time>
      </trkpt>
      <trkpt lat="42.43495" lon="0.07737">
        <ele>584</ele>
        <time>2016-07-31T10:46:05Z</time>
      </trkpt>
      <trkpt lat="42.43491" lon="0.07741">
        <ele>583.9</ele>
        <time>2016-07-31T10:46:06Z</time>
      </trkpt>
      <trkpt lat="42.43489" lon="0.07745">
        <ele>583.8</ele>
        <time>2016-07-31T10:46:07Z</time>
      </trkpt>
      <trkpt lat="42.43486" lon="0.07749">
        <ele>583.7</ele>
        <time>2016-07-31T10:46:08Z</time>
      </trkpt>
      <trkpt lat="42.43483" lon="0.07754">
        <ele>583.5</ele>
        <time>2016-07-31T10:46:09Z</time>
      </trkpt>
      <trkpt lat="42.4348" lon="0.07758">
        <ele>583.4</ele>
        <time>2016-07-31T10:46:10Z</time>
      </trkpt>
      <trkpt lat="42.43476" lon="0.07762">
        <ele>583.2</ele>
        <time>2016-07-31T10:46:11Z</time>
      </trkpt>
      <trkpt lat="42.43472" lon="0.07766">
        <ele>583</ele>
        <time>2016-07-31T10:46:12Z</time>
      </trkpt>
      <trkpt lat="42.43468" lon="0.07769">
        <ele>582.8</ele>
        <time>2016-07-31T10:46:13Z</time>
      </trkpt>
      <trkpt lat="42.43464" lon="0.07772">
        <ele>582.6</ele>
        <time>2016-07-31T10:46:14Z</time>
      </trkpt>
      <trkpt lat="42.43459" lon="0.07775">
        <ele>582.4</ele>
        <time>2016-07-31T10:46:15Z</time>
      </trkpt>
      <trkpt lat="42.43455" lon="0.07778">
        <ele>582.4</ele>
        <time>2016-07-31T10:46:16Z</time>
      </trkpt>
      <trkpt lat="42.43451" lon="0.07781">
        <ele>582.4</ele>
        <time>2016-07-31T10:46:17Z</time>
      </trkpt>
      <trkpt lat="42.43447" lon="0.07784">
        <ele>582.3</ele>
        <time>2016-07-31T10:46:18Z</time>
      </trkpt>
      <trkpt lat="42.43443" lon="0.07787">
        <ele>582.3</ele>
        <time>2016-07-31T10:46:19Z</time>
      </trkpt>
      <trkpt lat="42.43439" lon="0.0779">
        <ele>582.3</ele>
        <time>2016-07-31T10:46:20Z</time>
      </trkpt>
      <trkpt lat="42.43435" lon="0.07793">
        <ele>582.2</ele>
        <time>2016-07-31T10:46:21Z</time>
      </trkpt>
      <trkpt lat="42.43431" lon="0.07796">
        <ele>582.2</ele>
        <time>2016-07-31T10:46:22Z</time>
      </trkpt>
      <trkpt lat="42.43427" lon="0.07799">
        <ele>582.1</ele>
        <time>2016-07-31T10:46:23Z</time>
      </trkpt>
      <trkpt lat="42.43423" lon="0.07802">
        <ele>582</ele>
        <time>2016-07-31T10:46:24Z</time>
      </trkpt>
      <trkpt lat="42.4342" lon="0.07806">
        <ele>582</ele>
        <time>2016-07-31T10:46:25Z</time>
      </trkpt>
      <trkpt lat="42.43416" lon="0.07809">
        <ele>581.9</ele>
        <time>2016-07-31T10:46:26Z</time>
      </trkpt>
      <trkpt lat="42.43413" lon="0.07813">
        <ele>581.8</ele>
        <time>2016-07-31T10:46:27Z</time>
      </trkpt>
      <trkpt lat="42.4341" lon="0.07816">
        <ele>581.7</ele>
        <time>2016-07-31T10:46:28Z</time>
      </trkpt>
      <trkpt lat="42.43408" lon="0.0782">
        <ele>581.6</ele>
        <time>2016-07-31T10:46:29Z</time>
      </trkpt>
      <trkpt lat="42.43405" lon="0.07824">
        <ele>581.5</ele>
        <time>2016-07-31T10:46:30Z</time>
      </trkpt>
      <trkpt lat="42.43402" lon="0.07828">
        <ele>581.4</ele>
        <time>2016-07-31T10:46:31Z</time>
      </trkpt>
      <trkpt lat="42.43398" lon="0.07832">
        <ele>581.3</ele>
        <time>2016-07-31T10:46:32Z</time>
      </trkpt>
      <trkpt lat="42.43395" lon="0.07836">
        <ele>581.2</ele>
        <time>2016-07-31T10:46:33Z</time>
      </trkpt>
      <trkpt lat="42.43391" lon="0.0784">
        <ele>581.1</ele>
        <time>2016-07-31T10:46:34Z</time>
      </trkpt>
      <trkpt lat="42.43387" lon="0.07844">
        <ele>581</ele>
        <time>2016-07-31T10:46:35Z</time>
      </trkpt>
      <trkpt lat="42.43384" lon="0.07849">
        <ele>580.8</ele>
        <time>2016-07-31T10:46:36Z</time>
      </trkpt>
      <trkpt lat="42.4338" lon="0.07853">
        <ele>580.7</ele>
        <time>2016-07-31T10:46:37Z</time>
      </trkpt>
      <trkpt lat="42.43377" lon="0.07858">
        <ele>580.6</ele>
        <time>2016-07-31T10:46:38Z</time>
      </trkpt>
      <trkpt lat="42.43373" lon="0.07862">
        <ele>580.5</ele>
        <time>2016-07-31T10:46:39Z</time>
      </trkpt>
      <trkpt lat="42.43369" lon="0.07867">
        <ele>580.4</ele>
        <time>2016-07-31T10:46:40Z</time>
      </trkpt>
      <trkpt lat="42.43365" lon="0.07872">
        <ele>580.2</ele>
        <time>2016-07-31T10:46:41Z</time>
      </trkpt>
      <trkpt lat="42.43361" lon="0.07876">
        <ele>580.2</ele>
        <time>2016-07-31T10:46:42Z</time>
      </trkpt>
      <trkpt lat="42.43357" lon="0.07881">
        <ele>580.2</ele>
        <time>2016-07-31T10:46:43Z</time>
      </trkpt>
      <trkpt lat="42.43352" lon="0.07886">
        <ele>580.2</ele>
        <time>2016-07-31T10:46:44Z</time>
      </trkpt>
      <trkpt lat="42.43348" lon="0.07891">
        <ele>580.2</ele>
        <time>2016-07-31T10:46:45Z</time>
      </trkpt>
      <trkpt lat="42.43343" lon="0.07895">
        <ele>580.2</ele>
        <time>2016-07-31T10:46:46Z</time>
      </trkpt>
      <trkpt lat="42.43339" lon="0.079">
        <ele>580.2</ele>
        <time>2016-07-31T10:46:47Z</time>
      </trkpt>
      <trkpt lat="42.43334" lon="0.07904">
        <ele>580.1</ele>
        <time>2016-07-31T10:46:48Z</time>
      </trkpt>
      <trkpt lat="42.4333" lon="0.07908">
        <ele>580.1</ele>
        <time>2016-07-31T10:46:49Z</time>
      </trkpt>
      <trkpt lat="42.43326" lon="0.07912">
        <ele>580.1</ele>
        <time>2016-07-31T10:46:50Z</time>
      </trkpt>
      <trkpt lat="42.43321" lon="0.07917">
        <ele>580</ele>
        <time>2016-07-31T10:46:51Z</time>
      </trkpt>
      <trkpt lat="42.43317" lon="0.07921">
        <ele>579.9</ele>
        <time>2016-07-31T10:46:52Z</time>
      </trkpt>
      <trkpt lat="42.43313" lon="0.07926">
        <ele>579.8</ele>
        <time>2016-07-31T10:46:53Z</time>
      </trkpt>
      <trkpt lat="42.43309" lon="0.0793">
        <ele>579.7</ele>
        <time>2016-07-31T10:46:54Z</time>
      </trkpt>
      <trkpt lat="42.43305" lon="0.07935">
        <ele>579.6</ele>
        <time>2016-07-31T10:46:55Z</time>
      </trkpt>
      <trkpt lat="42.43301" lon="0.07939">
        <ele>579.5</ele>
        <time>2016-07-31T10:46:56Z</time>
      </trkpt>
      <trkpt lat="42.43297" lon="0.07943">
        <ele>579.4</ele>
        <time>2016-07-31T10:46:57Z</time>
      </trkpt>
      <trkpt lat="42.43293" lon="0.07948">
        <ele>579.3</ele>
        <time>2016-07-31T10:46:58Z</time>
      </trkpt>
      <trkpt lat="42.43289" lon="0.07952">
        <ele>579.1</ele>
        <time>2016-07-31T10:46:59Z</time>
      </trkpt>
      <trkpt lat="42.43285" lon="0.07957">
        <ele>579</ele>
        <time>2016-07-31T10:47:00Z</time>
      </trkpt>
      <trkpt lat="42.43281" lon="0.07962">
        <ele>578.8</ele>
        <time>2016-07-31T10:47:01Z</time>
      </trkpt>
      <trkpt lat="42.43278" lon="0.07967">
        <ele>578.6</ele>
        <time>2016-07-31T10:47:02Z</time>
      </trkpt>
      <trkpt lat="42.43274" lon="0.07972">
        <ele>578.5</ele>
        <time>2016-07-31T10:47:03Z</time>
      </trkpt>
      <trkpt lat="42.43271" lon="0.07977">
        <ele>578.3</ele>
        <time>2016-07-31T10:47:04Z</time>
      </trkpt>
      <trkpt lat="42.43267" lon="0.07982">
        <ele>578.1</ele>
        <time>2016-07-31T10:47:05Z</time>
      </trkpt>
      <trkpt lat="42.43264" lon="0.07987">
        <ele>578</ele>
        <time>2016-07-31T10:47:06Z</time>
      </trkpt>
      <trkpt lat="42.4326" lon="0.07992">
        <ele>577.8</ele>
        <time>2016-07-31T10:47:07Z</time>
      </trkpt>
      <trkpt lat="42.43256" lon="0.07996">
        <ele>577.7</ele>
        <time>2016-07-31T10:47:08Z</time>
      </trkpt>
      <trkpt lat="42.43252" lon="0.07999">
        <ele>577.5</ele>
        <time>2016-07-31T10:47:09Z</time>
      </trkpt>
      <trkpt lat="42.43248" lon="0.08003">
        <ele>577.4</ele>
        <time>2016-07-31T10:47:10Z</time>
      </trkpt>
      <trkpt lat="42.43243" lon="0.08006">
        <ele>577.3</ele>
        <time>2016-07-31T10:47:11Z</time>
      </trkpt>
      <trkpt lat="42.43239" lon="0.08009">
        <ele>577.2</ele>
        <time>2016-07-31T10:47:12Z</time>
      </trkpt>
      <trkpt lat="42.43235" lon="0.08012">
        <ele>577</ele>
        <time>2016-07-31T10:47:13Z</time>
      </trkpt>
      <trkpt lat="42.43231" lon="0.08015">
        <ele>576.9</ele>
        <time>2016-07-31T10:47:14Z</time>
      </trkpt>
      <trkpt lat="42.43226" lon="0.08018">
        <ele>576.8</ele>
        <time>2016-07-31T10:47:15Z</time>
      </trkpt>
      <trkpt lat="42.43222" lon="0.08021">
        <ele>576.7</ele>
        <time>2016-07-31T10:47:16Z</time>
      </trkpt>
      <trkpt lat="42.43218" lon="0.08024">
        <ele>576.5</ele>
        <time>2016-07-31T10:47:17Z</time>
      </trkpt>
      <trkpt lat="42.43213" lon="0.08027">
        <ele>576.4</ele>
        <time>2016-07-31T10:47:18Z</time>
      </trkpt>
      <trkpt lat="42.43209" lon="0.0803">
        <ele>576.3</ele>
        <time>2016-07-31T10:47:19Z</time>
      </trkpt>
      <trkpt lat="42.43205" lon="0.08033">
        <ele>576.3</ele>
        <time>2016-07-31T10:47:20Z</time>
      </trkpt>
      <trkpt lat="42.43201" lon="0.08036">
        <ele>576.2</ele>
        <time>2016-07-31T10:47:21Z</time>
      </trkpt>
      <trkpt lat="42.43197" lon="0.08039">
        <ele>576.2</ele>
        <time>2016-07-31T10:47:22Z</time>
      </trkpt>
      <trkpt lat="42.43192" lon="0.08042">
        <ele>576.2</ele>
        <time>2016-07-31T10:47:23Z</time>
      </trkpt>
      <trkpt lat="42.43188" lon="0.08045">
        <ele>576.3</ele>
        <time>2016-07-31T10:47:24Z</time>
      </trkpt>
      <trkpt lat="42.43184" lon="0.08048">
        <ele>576.4</ele>
        <time>2016-07-31T10:47:25Z</time>
      </trkpt>
      <trkpt lat="42.4318" lon="0.0805">
        <ele>576.5</ele>
        <time>2016-07-31T10:47:26Z</time>
      </trkpt>
      <trkpt lat="42.43176" lon="0.08053">
        <ele>576.6</ele>
        <time>2016-07-31T10:47:27Z</time>
      </trkpt>
      <trkpt lat="42.43171" lon="0.08056">
        <ele>576.7</ele>
        <time>2016-07-31T10:47:28Z</time>
      </trkpt>
      <trkpt lat="42.43167" lon="0.08058">
        <ele>576.8</ele>
        <time>2016-07-31T10:47:29Z</time>
      </trkpt>
      <trkpt lat="42.43162" lon="0.08061">
        <ele>576.9</ele>
        <time>2016-07-31T10:47:30Z</time>
      </trkpt>
      <trkpt lat="42.43157" lon="0.08063">
        <ele>577</ele>
        <time>2016-07-31T10:47:31Z</time>
      </trkpt>
      <trkpt lat="42.43153" lon="0.08066">
        <ele>577.1</ele>
        <time>2016-07-31T10:47:32Z</time>
      </trkpt>
      <trkpt lat="42.43148" lon="0.08068">
        <ele>577.3</ele>
        <time>2016-07-31T10:47:33Z</time>
      </trkpt>
      <trkpt lat="42.43144" lon="0.08071">
        <ele>577.4</ele>
        <time>2016-07-31T10:47:34Z</time>
      </trkpt>
      <trkpt lat="42.43139" lon="0.08074">
        <ele>577.5</ele>
        <time>2016-07-31T10:47:35Z</time>
      </trkpt>
      <trkpt lat="42.43134" lon="0.08076">
        <ele>577.7</ele>
        <time>2016-07-31T10:47:36Z</time>
      </trkpt>
      <trkpt lat="42.4313" lon="0.08078">
        <ele>577.8</ele>
        <time>2016-07-31T10:47:37Z</time>
      </trkpt>
      <trkpt lat="42.43125" lon="0.08081">
        <ele>577.9</ele>
        <time>2016-07-31T10:47:38Z</time>
      </trkpt>
      <trkpt lat="42.4312" lon="0.08083">
        <ele>578.4</ele>
        <time>2016-07-31T10:47:39Z</time>
      </trkpt>
      <trkpt lat="42.43115" lon="0.08086">
        <ele>578.8</ele>
        <time>2016-07-31T10:47:40Z</time>
      </trkpt>
      <trkpt lat="42.43111" lon="0.08088">
        <ele>579.2</ele>
        <time>2016-07-31T10:47:41Z</time>
      </trkpt>
      <trkpt lat="42.43107" lon="0.0809">
        <ele>579.6</ele>
        <time>2016-07-31T10:47:42Z</time>
      </trkpt>
      <trkpt lat="42.43103" lon="0.08092">
        <ele>579.9</ele>
        <time>2016-07-31T10:47:43Z</time>
      </trkpt>
      <trkpt lat="42.43098" lon="0.08094">
        <ele>580.2</ele>
        <time>2016-07-31T10:47:44Z</time>
      </trkpt>
      <trkpt lat="42.43094" lon="0.08096">
        <ele>580.5</ele>
        <time>2016-07-31T10:47:45Z</time>
      </trkpt>
      <trkpt lat="42.4309" lon="0.08099">
        <ele>580.7</ele>
        <time>2016-07-31T10:47:46Z</time>
      </trkpt>
      <trkpt lat="42.43085" lon="0.08101">
        <ele>580.9</ele>
        <time>2016-07-31T10:47:47Z</time>
      </trkpt>
      <trkpt lat="42.43081" lon="0.08104">
        <ele>581.2</ele>
        <time>2016-07-31T10:47:48Z</time>
      </trkpt>
      <trkpt lat="42.43077" lon="0.08106">
        <ele>581.3</ele>
        <time>2016-07-31T10:47:49Z</time>
      </trkpt>
      <trkpt lat="42.43072" lon="0.08108">
        <ele>581.5</ele>
        <time>2016-07-31T10:47:50Z</time>
      </trkpt>
      <trkpt lat="42.43068" lon="0.0811">
        <ele>581.7</ele>
        <time>2016-07-31T10:47:51Z</time>
      </trkpt>
      <trkpt lat="42.43064" lon="0.08112">
        <ele>581.8</ele>
        <time>2016-07-31T10:47:52Z</time>
      </trkpt>
      <trkpt lat="42.4306" lon="0.08114">
        <ele>581.9</ele>
        <time>2016-07-31T10:47:53Z</time>
      </trkpt>
      <trkpt lat="42.43056" lon="0.08117">
        <ele>582</ele>
        <time>2016-07-31T10:47:54Z</time>
      </trkpt>
      <trkpt lat="42.43052" lon="0.08119">
        <ele>582</ele>
        <time>2016-07-31T10:47:55Z</time>
      </trkpt>
      <trkpt lat="42.43048" lon="0.08121">
        <ele>582</ele>
        <time>2016-07-31T10:47:56Z</time>
      </trkpt>
      <trkpt lat="42.43044" lon="0.08123">
        <ele>582</ele>
        <time>2016-07-31T10:47:57Z</time>
      </trkpt>
      <trkpt lat="42.4304" lon="0.08125">
        <ele>582.3</ele>
        <time>2016-07-31T10:47:58Z</time>
      </trkpt>
      <trkpt lat="42.43037" lon="0.08127">
        <ele>582.9</ele>
        <time>2016-07-31T10:47:59Z</time>
      </trkpt>
      <trkpt lat="42.43034" lon="0.08129">
        <ele>583.5</ele>
        <time>2016-07-31T10:48:00Z</time>
      </trkpt>
      <trkpt lat="42.4303" lon="0.08131">
        <ele>584.2</ele>
        <time>2016-07-31T10:48:01Z</time>
      </trkpt>
      <trkpt lat="42.43027" lon="0.08134">
        <ele>584.8</ele>
        <time>2016-07-31T10:48:02Z</time>
      </trkpt>
      <trkpt lat="42.43023" lon="0.08136">
        <ele>585.4</ele>
        <time>2016-07-31T10:48:03Z</time>
      </trkpt>
      <trkpt lat="42.43019" lon="0.08138">
        <ele>586</ele>
        <time>2016-07-31T10:48:04Z</time>
      </trkpt>
      <trkpt lat="42.43015" lon="0.08141">
        <ele>586.6</ele>
        <time>2016-07-31T10:48:05Z</time>
      </trkpt>
      <trkpt lat="42.43011" lon="0.08144">
        <ele>587.1</ele>
        <time>2016-07-31T10:48:06Z</time>
      </trkpt>
      <trkpt lat="42.43007" lon="0.08147">
        <ele>587.5</ele>
        <time>2016-07-31T10:48:07Z</time>
      </trkpt>
      <trkpt lat="42.43004" lon="0.0815">
        <ele>587.9</ele>
        <time>2016-07-31T10:48:08Z</time>
      </trkpt>
      <trkpt lat="42.43001" lon="0.08153">
        <ele>588.2</ele>
        <time>2016-07-31T10:48:09Z</time>
      </trkpt>
      <trkpt lat="42.42998" lon="0.08155">
        <ele>588.5</ele>
        <time>2016-07-31T10:48:10Z</time>
      </trkpt>
      <trkpt lat="42.42994" lon="0.08158">
        <ele>588.8</ele>
        <time>2016-07-31T10:48:11Z</time>
      </trkpt>
      <trkpt lat="42.42991" lon="0.08161">
        <ele>589</ele>
        <time>2016-07-31T10:48:12Z</time>
      </trkpt>
      <trkpt lat="42.42988" lon="0.08164">
        <ele>589.2</ele>
        <time>2016-07-31T10:48:13Z</time>
      </trkpt>
      <trkpt lat="42.42984" lon="0.08167">
        <ele>589.4</ele>
        <time>2016-07-31T10:48:14Z</time>
      </trkpt>
      <trkpt lat="42.42981" lon="0.0817">
        <ele>589.5</ele>
        <time>2016-07-31T10:48:15Z</time>
      </trkpt>
      <trkpt lat="42.42978" lon="0.08174">
        <ele>589.6</ele>
        <time>2016-07-31T10:48:16Z</time>
      </trkpt>
      <trkpt lat="42.42975" lon="0.08178">
        <ele>589.4</ele>
        <time>2016-07-31T10:48:17Z</time>
      </trkpt>
      <trkpt lat="42.42972" lon="0.08182">
        <ele>589.2</ele>
        <time>2016-07-31T10:48:18Z</time>
      </trkpt>
      <trkpt lat="42.4297" lon="0.08187">
        <ele>588.8</ele>
        <time>2016-07-31T10:48:19Z</time>
      </trkpt>
      <trkpt lat="42.42968" lon="0.08193">
        <ele>588.3</ele>
        <time>2016-07-31T10:48:20Z</time>
      </trkpt>
      <trkpt lat="42.42966" lon="0.08198">
        <ele>587.8</ele>
        <time>2016-07-31T10:48:21Z</time>
      </trkpt>
      <trkpt lat="42.42964" lon="0.08202">
        <ele>587.4</ele>
        <time>2016-07-31T10:48:22Z</time>
      </trkpt>
      <trkpt lat="42.42962" lon="0.08206">
        <ele>587.1</ele>
        <time>2016-07-31T10:48:23Z</time>
      </trkpt>
      <trkpt lat="42.42959" lon="0.08208">
        <ele>587</ele>
        <time>2016-07-31T10:48:24Z</time>
      </trkpt>
      <trkpt lat="42.42955" lon="0.08208">
        <ele>587.1</ele>
        <time>2016-07-31T10:48:25Z</time>
      </trkpt>
      <trkpt lat="42.42951" lon="0.08206">
        <ele>587.4</ele>
        <time>2016-07-31T10:48:26Z</time>
      </trkpt>
      <trkpt lat="42.42947" lon="0.08203">
        <ele>587.9</ele>
        <time>2016-07-31T10:48:27Z</time>
      </trkpt>
      <trkpt lat="42.42942" lon="0.082">
        <ele>588.4</ele>
        <time>2016-07-31T10:48:28Z</time>
      </trkpt>
      <trkpt lat="42.42938" lon="0.08197">
        <ele>589</ele>
        <time>2016-07-31T10:48:29Z</time>
      </trkpt>
      <trkpt lat="42.42934" lon="0.08194">
        <ele>589.6</ele>
        <time>2016-07-31T10:48:30Z</time>
      </trkpt>
      <trkpt lat="42.42929" lon="0.08191">
        <ele>590.1</ele>
        <time>2016-07-31T10:48:31Z</time>
      </trkpt>
      <trkpt lat="42.42925" lon="0.08188">
        <ele>590.6</ele>
        <time>2016-07-31T10:48:32Z</time>
      </trkpt>
      <trkpt lat="42.42921" lon="0.08186">
        <ele>591.1</ele>
        <time>2016-07-31T10:48:33Z</time>
      </trkpt>
      <trkpt lat="42.42917" lon="0.08183">
        <ele>591.7</ele>
        <time>2016-07-31T10:48:34Z</time>
      </trkpt>
      <trkpt lat="42.42913" lon="0.08181">
        <ele>592.2</ele>
        <time>2016-07-31T10:48:35Z</time>
      </trkpt>
      <trkpt lat="42.42909" lon="0.08178">
        <ele>592.8</ele>
        <time>2016-07-31T10:48:36Z</time>
      </trkpt>
      <trkpt lat="42.42905" lon="0.08175">
        <ele>593.4</ele>
        <time>2016-07-31T10:48:37Z</time>
      </trkpt>
      <trkpt lat="42.42901" lon="0.08173">
        <ele>594</ele>
        <time>2016-07-31T10:48:38Z</time>
      </trkpt>
      <trkpt lat="42.42897" lon="0.08171">
        <ele>594.6</ele>
        <time>2016-07-31T10:48:39Z</time>
      </trkpt>
      <trkpt lat="42.42894" lon="0.08168">
        <ele>595.2</ele>
        <time>2016-07-31T10:48:40Z</time>
      </trkpt>
      <trkpt lat="42.4289" lon="0.08166">
        <ele>595.8</ele>
        <time>2016-07-31T10:48:41Z</time>
      </trkpt>
      <trkpt lat="42.42886" lon="0.08163">
        <ele>596.4</ele>
        <time>2016-07-31T10:48:42Z</time>
      </trkpt>
      <trkpt lat="42.42882" lon="0.08161">
        <ele>597.1</ele>
        <time>2016-07-31T10:48:43Z</time>
      </trkpt>
      <trkpt lat="42.42878" lon="0.08158">
        <ele>597.7</ele>
        <time>2016-07-31T10:48:44Z</time>
      </trkpt>
      <trkpt lat="42.42875" lon="0.08156">
        <ele>598.2</ele>
        <time>2016-07-31T10:48:45Z</time>
      </trkpt>
      <trkpt lat="42.42871" lon="0.08154">
        <ele>598.3</ele>
        <time>2016-07-31T10:48:46Z</time>
      </trkpt>
      <trkpt lat="42.42867" lon="0.08151">
        <ele>598.3</ele>
        <time>2016-07-31T10:48:47Z</time>
      </trkpt>
      <trkpt lat="42.42863" lon="0.08149">
        <ele>598.3</ele>
        <time>2016-07-31T10:48:48Z</time>
      </trkpt>
      <trkpt lat="42.42859" lon="0.08146">
        <ele>598.1</ele>
        <time>2016-07-31T10:48:49Z</time>
      </trkpt>
      <trkpt lat="42.42856" lon="0.08144">
        <ele>598</ele>
        <time>2016-07-31T10:48:50Z</time>
      </trkpt>
      <trkpt lat="42.42852" lon="0.08142">
        <ele>597.7</ele>
        <time>2016-07-31T10:48:51Z</time>
      </trkpt>
      <trkpt lat="42.42848" lon="0.0814">
        <ele>597.5</ele>
        <time>2016-07-31T10:48:52Z</time>
      </trkpt>
      <trkpt lat="42.42844" lon="0.08137">
        <ele>597.1</ele>
        <time>2016-07-31T10:48:53Z</time>
      </trkpt>
      <trkpt lat="42.4284" lon="0.08135">
        <ele>596.8</ele>
        <time>2016-07-31T10:48:54Z</time>
      </trkpt>
      <trkpt lat="42.42837" lon="0.08133">
        <ele>596.4</ele>
        <time>2016-07-31T10:48:55Z</time>
      </trkpt>
      <trkpt lat="42.42833" lon="0.08131">
        <ele>595.9</ele>
        <time>2016-07-31T10:48:56Z</time>
      </trkpt>
      <trkpt lat="42.4283" lon="0.08129">
        <ele>595.4</ele>
        <time>2016-07-31T10:48:57Z</time>
      </trkpt>
      <trkpt lat="42.42826" lon="0.08127">
        <ele>594.9</ele>
        <time>2016-07-31T10:48:58Z</time>
      </trkpt>
      <trkpt lat="42.42823" lon="0.08124">
        <ele>594.4</ele>
        <time>2016-07-31T10:48:59Z</time>
      </trkpt>
      <trkpt lat="42.42819" lon="0.08122">
        <ele>593.9</ele>
        <time>2016-07-31T10:49:00Z</time>
      </trkpt>
      <trkpt lat="42.42815" lon="0.0812">
        <ele>593.4</ele>
        <time>2016-07-31T10:49:01Z</time>
      </trkpt>
      <trkpt lat="42.42811" lon="0.08117">
        <ele>592.8</ele>
        <time>2016-07-31T10:49:02Z</time>
      </trkpt>
      <trkpt lat="42.42808" lon="0.08115">
        <ele>592.3</ele>
        <time>2016-07-31T10:49:03Z</time>
      </trkpt>
      <trkpt lat="42.42803" lon="0.08112">
        <ele>591.6</ele>
        <time>2016-07-31T10:49:04Z</time>
      </trkpt>
      <trkpt lat="42.42799" lon="0.0811">
        <ele>591</ele>
        <time>2016-07-31T10:49:05Z</time>
      </trkpt>
      <trkpt lat="42.42795" lon="0.08107">
        <ele>590.3</ele>
        <time>2016-07-31T10:49:06Z</time>
      </trkpt>
      <trkpt lat="42.42791" lon="0.08104">
        <ele>589.8</ele>
        <time>2016-07-31T10:49:07Z</time>
      </trkpt>
      <trkpt lat="42.42788" lon="0.081">
        <ele>590</ele>
        <time>2016-07-31T10:49:08Z</time>
      </trkpt>
      <trkpt lat="42.42783" lon="0.08097">
        <ele>590.1</ele>
        <time>2016-07-31T10:49:09Z</time>
      </trkpt>
      <trkpt lat="42.42779" lon="0.08093">
        <ele>590.3</ele>
        <time>2016-07-31T10:49:10Z</time>
      </trkpt>
      <trkpt lat="42.42775" lon="0.0809">
        <ele>590.4</ele>
        <time>2016-07-31T10:49:11Z</time>
      </trkpt>
      <trkpt lat="42.42771" lon="0.08086">
        <ele>590.5</ele>
        <time>2016-07-31T10:49:12Z</time>
      </trkpt>
      <trkpt lat="42.42767" lon="0.08083">
        <ele>590.5</ele>
        <time>2016-07-31T10:49:13Z</time>
      </trkpt>
      <trkpt lat="42.42764" lon="0.0808">
        <ele>590.5</ele>
        <time>2016-07-31T10:49:14Z</time>
      </trkpt>
      <trkpt lat="42.4276" lon="0.08076">
        <ele>590.5</ele>
        <time>2016-07-31T10:49:15Z</time>
      </trkpt>
      <trkpt lat="42.42756" lon="0.08073">
        <ele>590.5</ele>
        <time>2016-07-31T10:49:16Z</time>
      </trkpt>
      <trkpt lat="42.42752" lon="0.0807">
        <ele>590.4</ele>
        <time>2016-07-31T10:49:17Z</time>
      </trkpt>
      <trkpt lat="42.42749" lon="0.08066">
        <ele>590.4</ele>
        <time>2016-07-31T10:49:18Z</time>
      </trkpt>
      <trkpt lat="42.42746" lon="0.08062">
        <ele>590.4</ele>
        <time>2016-07-31T10:49:19Z</time>
      </trkpt>
      <trkpt lat="42.42743" lon="0.08057">
        <ele>590.4</ele>
        <time>2016-07-31T10:49:20Z</time>
      </trkpt>
      <trkpt lat="42.4274" lon="0.08053">
        <ele>590.3</ele>
        <time>2016-07-31T10:49:21Z</time>
      </trkpt>
      <trkpt lat="42.42738" lon="0.08048">
        <ele>590.3</ele>
        <time>2016-07-31T10:49:22Z</time>
      </trkpt>
      <trkpt lat="42.42736" lon="0.08044">
        <ele>590.2</ele>
        <time>2016-07-31T10:49:23Z</time>
      </trkpt>
      <trkpt lat="42.42734" lon="0.0804">
        <ele>590.2</ele>
        <time>2016-07-31T10:49:24Z</time>
      </trkpt>
      <trkpt lat="42.42732" lon="0.08035">
        <ele>590.1</ele>
        <time>2016-07-31T10:49:25Z</time>
      </trkpt>
      <trkpt lat="42.4273" lon="0.0803">
        <ele>590.1</ele>
        <time>2016-07-31T10:49:26Z</time>
      </trkpt>
      <trkpt lat="42.42728" lon="0.08025">
        <ele>590.1</ele>
        <time>2016-07-31T10:49:27Z</time>
      </trkpt>
      <trkpt lat="42.42727" lon="0.0802">
        <ele>590.1</ele>
        <time>2016-07-31T10:49:28Z</time>
      </trkpt>
      <trkpt lat="42.42725" lon="0.08015">
        <ele>590.1</ele>
        <time>2016-07-31T10:49:29Z</time>
      </trkpt>
      <trkpt lat="42.42724" lon="0.0801">
        <ele>590.2</ele>
        <time>2016-07-31T10:49:30Z</time>
      </trkpt>
      <trkpt lat="42.42723" lon="0.08005">
        <ele>590.2</ele>
        <time>2016-07-31T10:49:31Z</time>
      </trkpt>
      <trkpt lat="42.42721" lon="0.08">
        <ele>590.3</ele>
        <time>2016-07-31T10:49:32Z</time>
      </trkpt>
      <trkpt lat="42.4272" lon="0.07995">
        <ele>590.4</ele>
        <time>2016-07-31T10:49:33Z</time>
      </trkpt>
      <trkpt lat="42.42719" lon="0.0799">
        <ele>590.4</ele>
        <time>2016-07-31T10:49:34Z</time>
      </trkpt>
      <trkpt lat="42.42718" lon="0.07985">
        <ele>590.5</ele>
        <time>2016-07-31T10:49:35Z</time>
      </trkpt>
      <trkpt lat="42.42716" lon="0.0798">
        <ele>590.6</ele>
        <time>2016-07-31T10:49:36Z</time>
      </trkpt>
      <trkpt lat="42.42715" lon="0.07976">
        <ele>590.7</ele>
        <time>2016-07-31T10:49:37Z</time>
      </trkpt>
      <trkpt lat="42.42713" lon="0.07971">
        <ele>590.8</ele>
        <time>2016-07-31T10:49:38Z</time>
      </trkpt>
      <trkpt lat="42.42712" lon="0.07966">
        <ele>590.9</ele>
        <time>2016-07-31T10:49:39Z</time>
      </trkpt>
      <trkpt lat="42.42711" lon="0.07961">
        <ele>591</ele>
        <time>2016-07-31T10:49:40Z</time>
      </trkpt>
      <trkpt lat="42.4271" lon="0.07956">
        <ele>591.1</ele>
        <time>2016-07-31T10:49:41Z</time>
      </trkpt>
      <trkpt lat="42.42708" lon="0.07952">
        <ele>591.2</ele>
        <time>2016-07-31T10:49:42Z</time>
      </trkpt>
      <trkpt lat="42.42707" lon="0.07948">
        <ele>591.6</ele>
        <time>2016-07-31T10:49:43Z</time>
      </trkpt>
      <trkpt lat="42.42705" lon="0.07943">
        <ele>592</ele>
        <time>2016-07-31T10:49:44Z</time>
      </trkpt>
      <trkpt lat="42.42704" lon="0.07939">
        <ele>592.5</ele>
        <time>2016-07-31T10:49:45Z</time>
      </trkpt>
      <trkpt lat="42.42702" lon="0.07934">
        <ele>592.9</ele>
        <time>2016-07-31T10:49:46Z</time>
      </trkpt>
      <trkpt lat="42.42701" lon="0.0793">
        <ele>593.3</ele>
        <time>2016-07-31T10:49:47Z</time>
      </trkpt>
      <trkpt lat="42.42699" lon="0.07926">
        <ele>593.6</ele>
        <time>2016-07-31T10:49:48Z</time>
      </trkpt>
      <trkpt lat="42.42698" lon="0.07922">
        <ele>593.9</ele>
        <time>2016-07-31T10:49:49Z</time>
      </trkpt>
      <trkpt lat="42.42696" lon="0.07918">
        <ele>594.2</ele>
        <time>2016-07-31T10:49:50Z</time>
      </trkpt>
      <trkpt lat="42.42695" lon="0.07915">
        <ele>594.6</ele>
        <time>2016-07-31T10:49:51Z</time>
      </trkpt>
      <trkpt lat="42.42693" lon="0.07911">
        <ele>595</ele>
        <time>2016-07-31T10:49:52Z</time>
      </trkpt>
      <trkpt lat="42.4269" lon="0.07907">
        <ele>595.4</ele>
        <time>2016-07-31T10:49:53Z</time>
      </trkpt>
      <trkpt lat="42.42687" lon="0.07902">
        <ele>595.9</ele>
        <time>2016-07-31T10:49:54Z</time>
      </trkpt>
      <trkpt lat="42.42683" lon="0.07897">
        <ele>596.5</ele>
        <time>2016-07-31T10:49:55Z</time>
      </trkpt>
      <trkpt lat="42.42679" lon="0.07892">
        <ele>597.1</ele>
        <time>2016-07-31T10:49:56Z</time>
      </trkpt>
      <trkpt lat="42.42675" lon="0.07887">
        <ele>597.6</ele>
        <time>2016-07-31T10:49:57Z</time>
      </trkpt>
      <trkpt lat="42.42671" lon="0.07881">
        <ele>598</ele>
        <time>2016-07-31T10:49:58Z</time>
      </trkpt>
      <trkpt lat="42.42667" lon="0.07876">
        <ele>598.4</ele>
        <time>2016-07-31T10:49:59Z</time>
      </trkpt>
      <trkpt lat="42.42663" lon="0.07872">
        <ele>598.8</ele>
        <time>2016-07-31T10:50:00Z</time>
      </trkpt>
      <trkpt lat="42.42659" lon="0.07869">
        <ele>599.2</ele>
        <time>2016-07-31T10:50:01Z</time>
      </trkpt>
      <trkpt lat="42.42656" lon="0.07867">
        <ele>599.4</ele>
        <time>2016-07-31T10:50:02Z</time>
      </trkpt>
      <trkpt lat="42.42652" lon="0.07864">
        <ele>599.6</ele>
        <time>2016-07-31T10:50:03Z</time>
      </trkpt>
      <trkpt lat="42.4265" lon="0.0786">
        <ele>599.7</ele>
        <time>2016-07-31T10:50:04Z</time>
      </trkpt>
      <trkpt lat="42.42647" lon="0.07856">
        <ele>599.7</ele>
        <time>2016-07-31T10:50:05Z</time>
      </trkpt>
      <trkpt lat="42.42645" lon="0.07853">
        <ele>599.7</ele>
        <time>2016-07-31T10:50:06Z</time>
      </trkpt>
      <trkpt lat="42.42642" lon="0.07849">
        <ele>599.6</ele>
        <time>2016-07-31T10:50:07Z</time>
      </trkpt>
      <trkpt lat="42.4264" lon="0.07846">
        <ele>599.5</ele>
        <time>2016-07-31T10:50:08Z</time>
      </trkpt>
      <trkpt lat="42.42637" lon="0.07843">
        <ele>599.5</ele>
        <time>2016-07-31T10:50:09Z</time>
      </trkpt>
      <trkpt lat="42.42634" lon="0.0784">
        <ele>599.6</ele>
        <time>2016-07-31T10:50:10Z</time>
      </trkpt>
      <trkpt lat="42.4263" lon="0.07838">
        <ele>599.7</ele>
        <time>2016-07-31T10:50:11Z</time>
      </trkpt>
      <trkpt lat="42.42626" lon="0.07837">
        <ele>599.8</ele>
        <time>2016-07-31T10:50:12Z</time>
      </trkpt>
      <trkpt lat="42.42622" lon="0.07836">
        <ele>600.6</ele>
        <time>2016-07-31T10:50:13Z</time>
      </trkpt>
      <trkpt lat="42.42619" lon="0.07835">
        <ele>601.7</ele>
        <time>2016-07-31T10:50:14Z</time>
      </trkpt>
      <trkpt lat="42.42615" lon="0.07833">
        <ele>602.7</ele>
        <time>2016-07-31T10:50:15Z</time>
      </trkpt>
      <trkpt lat="42.42611" lon="0.07832">
        <ele>603.8</ele>
        <time>2016-07-31T10:50:16Z</time>
      </trkpt>
      <trkpt lat="42.42607" lon="0.0783">
        <ele>604.8</ele>
        <time>2016-07-31T10:50:17Z</time>
      </trkpt>
      <trkpt lat="42.42603" lon="0.07828">
        <ele>605.8</ele>
        <time>2016-07-31T10:50:18Z</time>
      </trkpt>
      <trkpt lat="42.42599" lon="0.07826">
        <ele>606.7</ele>
        <time>2016-07-31T10:50:19Z</time>
      </trkpt>
      <trkpt lat="42.42596" lon="0.07824">
        <ele>607.5</ele>
        <time>2016-07-31T10:50:20Z</time>
      </trkpt>
      <trkpt lat="42.42592" lon="0.07822">
        <ele>608.4</ele>
        <time>2016-07-31T10:50:21Z</time>
      </trkpt>
      <trkpt lat="42.42588" lon="0.0782">
        <ele>609.2</ele>
        <time>2016-07-31T10:50:22Z</time>
      </trkpt>
      <trkpt lat="42.42585" lon="0.07818">
        <ele>610.1</ele>
        <time>2016-07-31T10:50:23Z</time>
      </trkpt>
      <trkpt lat="42.42582" lon="0.07816">
        <ele>610.8</ele>
        <time>2016-07-31T10:50:24Z</time>
      </trkpt>
      <trkpt lat="42.42579" lon="0.07814">
        <ele>611.3</ele>
        <time>2016-07-31T10:50:25Z</time>
      </trkpt>
      <trkpt lat="42.42576" lon="0.07811">
        <ele>611.8</ele>
        <time>2016-07-31T10:50:26Z</time>
      </trkpt>
      <trkpt lat="42.42574" lon="0.07808">
        <ele>612.1</ele>
        <time>2016-07-31T10:50:27Z</time>
      </trkpt>
      <trkpt lat="42.42571" lon="0.07806">
        <ele>612.5</ele>
        <time>2016-07-31T10:50:28Z</time>
      </trkpt>
      <trkpt lat="42.42569" lon="0.07803">
        <ele>612.9</ele>
        <time>2016-07-31T10:50:29Z</time>
      </trkpt>
      <trkpt lat="42.42566" lon="0.07801">
        <ele>613.3</ele>
        <time>2016-07-31T10:50:30Z</time>
      </trkpt>
      <trkpt lat="42.42564" lon="0.07799">
        <ele>613.7</ele>
        <time>2016-07-31T10:50:31Z</time>
      </trkpt>
      <trkpt lat="42.4256" lon="0.07794">
        <ele>613.9</ele>
        <time>2016-07-31T10:50:33Z</time>
      </trkpt>
      <trkpt lat="42.42558" lon="0.07788">
        <ele>613.9</ele>
        <time>2016-07-31T10:50:35Z</time>
      </trkpt>
      <trkpt lat="42.42556" lon="0.07785">
        <ele>614</ele>
        <time>2016-07-31T10:50:36Z</time>
      </trkpt>
      <trkpt lat="42.42554" lon="0.07782">
        <ele>614.2</ele>
        <time>2016-07-31T10:50:37Z</time>
      </trkpt>
      <trkpt lat="42.42553" lon="0.07779">
        <ele>614.3</ele>
        <time>2016-07-31T10:50:38Z</time>
      </trkpt>
      <trkpt lat="42.4255" lon="0.07776">
        <ele>614.5</ele>
        <time>2016-07-31T10:50:39Z</time>
      </trkpt>
      <trkpt lat="42.42548" lon="0.07773">
        <ele>614.7</ele>
        <time>2016-07-31T10:50:40Z</time>
      </trkpt>
      <trkpt lat="42.42546" lon="0.07769">
        <ele>614.8</ele>
        <time>2016-07-31T10:50:41Z</time>
      </trkpt>
      <trkpt lat="42.42543" lon="0.07766">
        <ele>614.9</ele>
        <time>2016-07-31T10:50:42Z</time>
      </trkpt>
      <trkpt lat="42.42541" lon="0.07763">
        <ele>614.9</ele>
        <time>2016-07-31T10:50:43Z</time>
      </trkpt>
      <trkpt lat="42.42539" lon="0.0776">
        <ele>614.7</ele>
        <time>2016-07-31T10:50:44Z</time>
      </trkpt>
      <trkpt lat="42.42536" lon="0.07757">
        <ele>614.5</ele>
        <time>2016-07-31T10:50:46Z</time>
      </trkpt>
      <trkpt lat="42.42533" lon="0.07754">
        <ele>614.4</ele>
        <time>2016-07-31T10:50:48Z</time>
      </trkpt>
      <trkpt lat="42.4253" lon="0.07751">
        <ele>614.1</ele>
        <time>2016-07-31T10:50:50Z</time>
      </trkpt>
      <trkpt lat="42.42528" lon="0.07746">
        <ele>613.6</ele>
        <time>2016-07-31T10:50:52Z</time>
      </trkpt>
      <trkpt lat="42.42524" lon="0.0774">
        <ele>613</ele>
        <time>2016-07-31T10:50:54Z</time>
      </trkpt>
      <trkpt lat="42.42521" lon="0.07735">
        <ele>612.4</ele>
        <time>2016-07-31T10:50:56Z</time>
      </trkpt>
      <trkpt lat="42.42519" lon="0.07729">
        <ele>611.6</ele>
        <time>2016-07-31T10:50:58Z</time>
      </trkpt>
      <trkpt lat="42.42518" lon="0.07725">
        <ele>611.1</ele>
        <time>2016-07-31T10:50:59Z</time>
      </trkpt>
      <trkpt lat="42.42518" lon="0.07719">
        <ele>610.1</ele>
        <time>2016-07-31T10:51:01Z</time>
      </trkpt>
      <trkpt lat="42.42518" lon="0.07713">
        <ele>609.1</ele>
        <time>2016-07-31T10:51:03Z</time>
      </trkpt>
      <trkpt lat="42.4252" lon="0.07708">
        <ele>608.3</ele>
        <time>2016-07-31T10:51:05Z</time>
      </trkpt>
      <trkpt lat="42.42522" lon="0.07703">
        <ele>608.4</ele>
        <time>2016-07-31T10:51:07Z</time>
      </trkpt>
      <trkpt lat="42.42523" lon="0.07696">
        <ele>608.6</ele>
        <time>2016-07-31T10:51:09Z</time>
      </trkpt>
      <trkpt lat="42.42524" lon="0.07689">
        <ele>608.7</ele>
        <time>2016-07-31T10:51:11Z</time>
      </trkpt>
      <trkpt lat="42.42526" lon="0.07684">
        <ele>608.8</ele>
        <time>2016-07-31T10:51:13Z</time>
      </trkpt>
      <trkpt lat="42.42529" lon="0.07679">
        <ele>608.7</ele>
        <time>2016-07-31T10:51:15Z</time>
      </trkpt>
      <trkpt lat="42.42532" lon="0.07675">
        <ele>608.6</ele>
        <time>2016-07-31T10:51:17Z</time>
      </trkpt>
      <trkpt lat="42.42534" lon="0.07672">
        <ele>608.6</ele>
        <time>2016-07-31T10:51:19Z</time>
      </trkpt>
      <trkpt lat="42.42535" lon="0.07668">
        <ele>608.6</ele>
        <time>2016-07-31T10:51:22Z</time>
      </trkpt>
      <trkpt lat="42.42536" lon="0.07664">
        <ele>608.6</ele>
        <time>2016-07-31T10:51:24Z</time>
      </trkpt>
      <trkpt lat="42.42535" lon="0.07659">
        <ele>608.8</ele>
        <time>2016-07-31T10:51:26Z</time>
      </trkpt>
      <trkpt lat="42.42534" lon="0.07655">
        <ele>609.1</ele>
        <time>2016-07-31T10:51:28Z</time>
      </trkpt>
      <trkpt lat="42.42531" lon="0.0765">
        <ele>609.4</ele>
        <time>2016-07-31T10:51:30Z</time>
      </trkpt>
      <trkpt lat="42.42529" lon="0.07645">
        <ele>609.8</ele>
        <time>2016-07-31T10:51:32Z</time>
      </trkpt>
      <trkpt lat="42.42528" lon="0.07638">
        <ele>610.2</ele>
        <time>2016-07-31T10:51:34Z</time>
      </trkpt>
      <trkpt lat="42.42526" lon="0.07633">
        <ele>610.7</ele>
        <time>2016-07-31T10:51:36Z</time>
      </trkpt>
      <trkpt lat="42.42524" lon="0.07629">
        <ele>610.9</ele>
        <time>2016-07-31T10:51:37Z</time>
      </trkpt>
      <trkpt lat="42.42521" lon="0.07624">
        <ele>611.7</ele>
        <time>2016-07-31T10:51:39Z</time>
      </trkpt>
      <trkpt lat="42.42518" lon="0.07621">
        <ele>613</ele>
        <time>2016-07-31T10:51:41Z</time>
      </trkpt>
      <trkpt lat="42.42515" lon="0.07619">
        <ele>613.8</ele>
        <time>2016-07-31T10:51:43Z</time>
      </trkpt>
      <trkpt lat="42.42511" lon="0.07619">
        <ele>614.3</ele>
        <time>2016-07-31T10:51:45Z</time>
      </trkpt>
      <trkpt lat="42.42508" lon="0.07621">
        <ele>614</ele>
        <time>2016-07-31T10:51:47Z</time>
      </trkpt>
      <trkpt lat="42.42504" lon="0.07624">
        <ele>613.7</ele>
        <time>2016-07-31T10:51:49Z</time>
      </trkpt>
      <trkpt lat="42.425" lon="0.07626">
        <ele>614</ele>
        <time>2016-07-31T10:51:51Z</time>
      </trkpt>
      <trkpt lat="42.42496" lon="0.07628">
        <ele>614.4</ele>
        <time>2016-07-31T10:51:53Z</time>
      </trkpt>
      <trkpt lat="42.42493" lon="0.07629">
        <ele>614.6</ele>
        <time>2016-07-31T10:51:54Z</time>
      </trkpt>
      <trkpt lat="42.4249" lon="0.0763">
        <ele>614.9</ele>
        <time>2016-07-31T10:51:55Z</time>
      </trkpt>
      <trkpt lat="42.42484" lon="0.0763">
        <ele>615.6</ele>
        <time>2016-07-31T10:51:57Z</time>
      </trkpt>
      <trkpt lat="42.42479" lon="0.07631">
        <ele>616.2</ele>
        <time>2016-07-31T10:51:59Z</time>
      </trkpt>
      <trkpt lat="42.42474" lon="0.07628">
        <ele>616.9</ele>
        <time>2016-07-31T10:52:01Z</time>
      </trkpt>
      <trkpt lat="42.42472" lon="0.07626">
        <ele>617.4</ele>
        <time>2016-07-31T10:52:02Z</time>
      </trkpt>
      <trkpt lat="42.42469" lon="0.07623">
        <ele>618.3</ele>
        <time>2016-07-31T10:52:03Z</time>
      </trkpt>
      <trkpt lat="42.42466" lon="0.0762">
        <ele>619.2</ele>
        <time>2016-07-31T10:52:04Z</time>
      </trkpt>
      <trkpt lat="42.42463" lon="0.07618">
        <ele>619.9</ele>
        <time>2016-07-31T10:52:05Z</time>
      </trkpt>
      <trkpt lat="42.4246" lon="0.07614">
        <ele>621.2</ele>
        <time>2016-07-31T10:52:07Z</time>
      </trkpt>
      <trkpt lat="42.42456" lon="0.0761">
        <ele>622.3</ele>
        <time>2016-07-31T10:52:09Z</time>
      </trkpt>
      <trkpt lat="42.42454" lon="0.07607">
        <ele>622.9</ele>
        <time>2016-07-31T10:52:10Z</time>
      </trkpt>
      <trkpt lat="42.42451" lon="0.07603">
        <ele>623.9</ele>
        <time>2016-07-31T10:52:12Z</time>
      </trkpt>
      <trkpt lat="42.42448" lon="0.07601">
        <ele>624.3</ele>
        <time>2016-07-31T10:52:14Z</time>
      </trkpt>
      <trkpt lat="42.42445" lon="0.07601">
        <ele>624.3</ele>
        <time>2016-07-31T10:52:16Z</time>
      </trkpt>
      <trkpt lat="42.42442" lon="0.07602">
        <ele>624.2</ele>
        <time>2016-07-31T10:52:18Z</time>
      </trkpt>
      <trkpt lat="42.42438" lon="0.07603">
        <ele>624.1</ele>
        <time>2016-07-31T10:52:20Z</time>
      </trkpt>
      <trkpt lat="42.42435" lon="0.07604">
        <ele>623.8</ele>
        <time>2016-07-31T10:52:22Z</time>
      </trkpt>
      <trkpt lat="42.42431" lon="0.07606">
        <ele>623.4</ele>
        <time>2016-07-31T10:52:24Z</time>
      </trkpt>
      <trkpt lat="42.42428" lon="0.07608">
        <ele>623</ele>
        <time>2016-07-31T10:52:26Z</time>
      </trkpt>
      <trkpt lat="42.42426" lon="0.07609">
        <ele>622.6</ele>
        <time>2016-07-31T10:52:28Z</time>
      </trkpt>
      <trkpt lat="42.42423" lon="0.0761">
        <ele>622.5</ele>
        <time>2016-07-31T10:52:30Z</time>
      </trkpt>
      <trkpt lat="42.4242" lon="0.07611">
        <ele>622.4</ele>
        <time>2016-07-31T10:52:32Z</time>
      </trkpt>
      <trkpt lat="42.42417" lon="0.07612">
        <ele>622.1</ele>
        <time>2016-07-31T10:52:34Z</time>
      </trkpt>
      <trkpt lat="42.42414" lon="0.07612">
        <ele>622</ele>
        <time>2016-07-31T10:52:36Z</time>
      </trkpt>
      <trkpt lat="42.42411" lon="0.07612">
        <ele>622.1</ele>
        <time>2016-07-31T10:52:38Z</time>
      </trkpt>
      <trkpt lat="42.42408" lon="0.07612">
        <ele>622.2</ele>
        <time>2016-07-31T10:52:40Z</time>
      </trkpt>
      <trkpt lat="42.42405" lon="0.07612">
        <ele>622.1</ele>
        <time>2016-07-31T10:52:42Z</time>
      </trkpt>
      <trkpt lat="42.42402" lon="0.07611">
        <ele>622.4</ele>
        <time>2016-07-31T10:52:44Z</time>
      </trkpt>
      <trkpt lat="42.424" lon="0.07609">
        <ele>622.9</ele>
        <time>2016-07-31T10:52:46Z</time>
      </trkpt>
      <trkpt lat="42.42397" lon="0.07607">
        <ele>623.3</ele>
        <time>2016-07-31T10:52:48Z</time>
      </trkpt>
      <trkpt lat="42.42394" lon="0.07606">
        <ele>623.6</ele>
        <time>2016-07-31T10:52:51Z</time>
      </trkpt>
      <trkpt lat="42.4239" lon="0.07605">
        <ele>623.9</ele>
        <time>2016-07-31T10:52:54Z</time>
      </trkpt>
      <trkpt lat="42.42387" lon="0.07603">
        <ele>624.4</ele>
        <time>2016-07-31T10:52:57Z</time>
      </trkpt>
      <trkpt lat="42.42385" lon="0.076">
        <ele>625.1</ele>
        <time>2016-07-31T10:53:00Z</time>
      </trkpt>
      <trkpt lat="42.42383" lon="0.07596">
        <ele>626.1</ele>
        <time>2016-07-31T10:53:03Z</time>
      </trkpt>
      <trkpt lat="42.4238" lon="0.07592">
        <ele>627.1</ele>
        <time>2016-07-31T10:53:06Z</time>
      </trkpt>
      <trkpt lat="42.42378" lon="0.07589">
        <ele>628.1</ele>
        <time>2016-07-31T10:53:09Z</time>
      </trkpt>
      <trkpt lat="42.42375" lon="0.07585">
        <ele>629</ele>
        <time>2016-07-31T10:53:12Z</time>
      </trkpt>
      <trkpt lat="42.42373" lon="0.07583">
        <ele>629.4</ele>
        <time>2016-07-31T10:53:14Z</time>
      </trkpt>
      <trkpt lat="42.4237" lon="0.07581">
        <ele>629.9</ele>
        <time>2016-07-31T10:53:17Z</time>
      </trkpt>
      <trkpt lat="42.42366" lon="0.07578">
        <ele>630.4</ele>
        <time>2016-07-31T10:53:20Z</time>
      </trkpt>
      <trkpt lat="42.42364" lon="0.07575">
        <ele>630.8</ele>
        <time>2016-07-31T10:53:22Z</time>
      </trkpt>
      <trkpt lat="42.42361" lon="0.07572">
        <ele>631.3</ele>
        <time>2016-07-31T10:53:25Z</time>
      </trkpt>
      <trkpt lat="42.42358" lon="0.07568">
        <ele>632.1</ele>
        <time>2016-07-31T10:53:28Z</time>
      </trkpt>
      <trkpt lat="42.42356" lon="0.07564">
        <ele>632.9</ele>
        <time>2016-07-31T10:53:31Z</time>
      </trkpt>
      <trkpt lat="42.42353" lon="0.07561">
        <ele>633.3</ele>
        <time>2016-07-31T10:53:34Z</time>
      </trkpt>
      <trkpt lat="42.4235" lon="0.0756">
        <ele>633.2</ele>
        <time>2016-07-31T10:53:36Z</time>
      </trkpt>
      <trkpt lat="42.42348" lon="0.07561">
        <ele>632.8</ele>
        <time>2016-07-31T10:53:38Z</time>
      </trkpt>
      <trkpt lat="42.42345" lon="0.07559">
        <ele>633</ele>
        <time>2016-07-31T10:53:41Z</time>
      </trkpt>
      <trkpt lat="42.42343" lon="0.07555">
        <ele>633.6</ele>
        <time>2016-07-31T10:53:44Z</time>
      </trkpt>
      <trkpt lat="42.4234" lon="0.07552">
        <ele>634.1</ele>
        <time>2016-07-31T10:53:47Z</time>
      </trkpt>
      <trkpt lat="42.42337" lon="0.07549">
        <ele>634.3</ele>
        <time>2016-07-31T10:53:50Z</time>
      </trkpt>
      <trkpt lat="42.42334" lon="0.07546">
        <ele>634.7</ele>
        <time>2016-07-31T10:53:53Z</time>
      </trkpt>
      <trkpt lat="42.42332" lon="0.07541">
        <ele>635.4</ele>
        <time>2016-07-31T10:53:56Z</time>
      </trkpt>
      <trkpt lat="42.4233" lon="0.07536">
        <ele>636</ele>
        <time>2016-07-31T10:53:59Z</time>
      </trkpt>
      <trkpt lat="42.42328" lon="0.07533">
        <ele>636.3</ele>
        <time>2016-07-31T10:54:01Z</time>
      </trkpt>
      <trkpt lat="42.42327" lon="0.0753">
        <ele>636.6</ele>
        <time>2016-07-31T10:54:03Z</time>
      </trkpt>
      <trkpt lat="42.42325" lon="0.07527">
        <ele>636.9</ele>
        <time>2016-07-31T10:54:05Z</time>
      </trkpt>
      <trkpt lat="42.42323" lon="0.07523">
        <ele>637.4</ele>
        <time>2016-07-31T10:54:08Z</time>
      </trkpt>
      <trkpt lat="42.4232" lon="0.07519">
        <ele>637.9</ele>
        <time>2016-07-31T10:54:11Z</time>
      </trkpt>
      <trkpt lat="42.42318" lon="0.07516">
        <ele>638.3</ele>
        <time>2016-07-31T10:54:13Z</time>
      </trkpt>
      <trkpt lat="42.42317" lon="0.07513">
        <ele>638.6</ele>
        <time>2016-07-31T10:54:15Z</time>
      </trkpt>
      <trkpt lat="42.42314" lon="0.07511">
        <ele>638.8</ele>
        <time>2016-07-31T10:54:17Z</time>
      </trkpt>
      <trkpt lat="42.42312" lon="0.07509">
        <ele>639.1</ele>
        <time>2016-07-31T10:54:19Z</time>
      </trkpt>
      <trkpt lat="42.4231" lon="0.07506">
        <ele>639.3</ele>
        <time>2016-07-31T10:54:21Z</time>
      </trkpt>
      <trkpt lat="42.42307" lon="0.07503">
        <ele>639.8</ele>
        <time>2016-07-31T10:54:23Z</time>
      </trkpt>
      <trkpt lat="42.42305" lon="0.075">
        <ele>640.2</ele>
        <time>2016-07-31T10:54:25Z</time>
      </trkpt>
      <trkpt lat="42.42303" lon="0.07497">
        <ele>640.7</ele>
        <time>2016-07-31T10:54:27Z</time>
      </trkpt>
      <trkpt lat="42.42301" lon="0.07494">
        <ele>641.1</ele>
        <time>2016-07-31T10:54:29Z</time>
      </trkpt>
      <trkpt lat="42.42299" lon="0.07491">
        <ele>641.6</ele>
        <time>2016-07-31T10:54:32Z</time>
      </trkpt>
      <trkpt lat="42.42296" lon="0.07488">
        <ele>642.2</ele>
        <time>2016-07-31T10:54:35Z</time>
      </trkpt>
      <trkpt lat="42.42294" lon="0.07486">
        <ele>642.5</ele>
        <time>2016-07-31T10:54:37Z</time>
      </trkpt>
      <trkpt lat="42.4229" lon="0.07484">
        <ele>642.7</ele>
        <time>2016-07-31T10:54:39Z</time>
      </trkpt>
      <trkpt lat="42.42287" lon="0.07484">
        <ele>642.8</ele>
        <time>2016-07-31T10:54:41Z</time>
      </trkpt>
      <trkpt lat="42.42284" lon="0.07483">
        <ele>642.9</ele>
        <time>2016-07-31T10:54:43Z</time>
      </trkpt>
      <trkpt lat="42.42282" lon="0.0748">
        <ele>643.5</ele>
        <time>2016-07-31T10:54:45Z</time>
      </trkpt>
      <trkpt lat="42.4228" lon="0.07477">
        <ele>644.1</ele>
        <time>2016-07-31T10:54:47Z</time>
      </trkpt>
      <trkpt lat="42.42278" lon="0.07474">
        <ele>644.7</ele>
        <time>2016-07-31T10:54:49Z</time>
      </trkpt>
      <trkpt lat="42.42277" lon="0.07471">
        <ele>645.5</ele>
        <time>2016-07-31T10:54:51Z</time>
      </trkpt>
      <trkpt lat="42.42276" lon="0.07467">
        <ele>646.4</ele>
        <time>2016-07-31T10:54:54Z</time>
      </trkpt>
      <trkpt lat="42.42275" lon="0.07463">
        <ele>647.3</ele>
        <time>2016-07-31T10:54:56Z</time>
      </trkpt>
      <trkpt lat="42.42274" lon="0.07459">
        <ele>648.2</ele>
        <time>2016-07-31T10:54:58Z</time>
      </trkpt>
      <trkpt lat="42.42272" lon="0.07455">
        <ele>648.7</ele>
        <time>2016-07-31T10:55:01Z</time>
      </trkpt>
      <trkpt lat="42.4227" lon="0.07451">
        <ele>649.2</ele>
        <time>2016-07-31T10:55:03Z</time>
      </trkpt>
      <trkpt lat="42.42269" lon="0.07448">
        <ele>649.6</ele>
        <time>2016-07-31T10:55:05Z</time>
      </trkpt>
      <trkpt lat="42.42268" lon="0.07444">
        <ele>650.2</ele>
        <time>2016-07-31T10:55:07Z</time>
      </trkpt>
      <trkpt lat="42.42268" lon="0.07439">
        <ele>650.7</ele>
        <time>2016-07-31T10:55:09Z</time>
      </trkpt>
      <trkpt lat="42.42266" lon="0.07435">
        <ele>651.3</ele>
        <time>2016-07-31T10:55:12Z</time>
      </trkpt>
      <trkpt lat="42.42265" lon="0.07431">
        <ele>651.7</ele>
        <time>2016-07-31T10:55:14Z</time>
      </trkpt>
      <trkpt lat="42.42264" lon="0.07428">
        <ele>652</ele>
        <time>2016-07-31T10:55:16Z</time>
      </trkpt>
      <trkpt lat="42.42261" lon="0.07424">
        <ele>652.5</ele>
        <time>2016-07-31T10:55:19Z</time>
      </trkpt>
      <trkpt lat="42.42258" lon="0.07422">
        <ele>652.8</ele>
        <time>2016-07-31T10:55:22Z</time>
      </trkpt>
      <trkpt lat="42.42255" lon="0.07422">
        <ele>652.7</ele>
        <time>2016-07-31T10:55:24Z</time>
      </trkpt>
      <trkpt lat="42.42252" lon="0.07422">
        <ele>652.7</ele>
        <time>2016-07-31T10:55:26Z</time>
      </trkpt>
      <trkpt lat="42.42249" lon="0.0742">
        <ele>652.8</ele>
        <time>2016-07-31T10:55:28Z</time>
      </trkpt>
      <trkpt lat="42.42246" lon="0.07419">
        <ele>652.9</ele>
        <time>2016-07-31T10:55:30Z</time>
      </trkpt>
      <trkpt lat="42.42243" lon="0.07417">
        <ele>653.1</ele>
        <time>2016-07-31T10:55:32Z</time>
      </trkpt>
      <trkpt lat="42.42241" lon="0.07415">
        <ele>653.2</ele>
        <time>2016-07-31T10:55:34Z</time>
      </trkpt>
      <trkpt lat="42.42239" lon="0.07411">
        <ele>653.7</ele>
        <time>2016-07-31T10:55:37Z</time>
      </trkpt>
      <trkpt lat="42.42239" lon="0.07405">
        <ele>654.3</ele>
        <time>2016-07-31T10:55:40Z</time>
      </trkpt>
      <trkpt lat="42.4224" lon="0.07402">
        <ele>654.7</ele>
        <time>2016-07-31T10:55:42Z</time>
      </trkpt>
      <trkpt lat="42.42239" lon="0.07398">
        <ele>655</ele>
        <time>2016-07-31T10:55:44Z</time>
      </trkpt>
      <trkpt lat="42.42238" lon="0.07394">
        <ele>655.4</ele>
        <time>2016-07-31T10:55:47Z</time>
      </trkpt>
      <trkpt lat="42.42236" lon="0.07389">
        <ele>655.8</ele>
        <time>2016-07-31T10:55:50Z</time>
      </trkpt>
      <trkpt lat="42.42235" lon="0.07384">
        <ele>656.3</ele>
        <time>2016-07-31T10:55:53Z</time>
      </trkpt>
      <trkpt lat="42.42235" lon="0.0738">
        <ele>656.8</ele>
        <time>2016-07-31T10:55:55Z</time>
      </trkpt>
      <trkpt lat="42.42234" lon="0.07376">
        <ele>657.2</ele>
        <time>2016-07-31T10:55:57Z</time>
      </trkpt>
      <trkpt lat="42.42234" lon="0.07372">
        <ele>657.6</ele>
        <time>2016-07-31T10:55:59Z</time>
      </trkpt>
      <trkpt lat="42.42233" lon="0.07368">
        <ele>658.1</ele>
        <time>2016-07-31T10:56:01Z</time>
      </trkpt>
      <trkpt lat="42.42232" lon="0.07365">
        <ele>658.5</ele>
        <time>2016-07-31T10:56:03Z</time>
      </trkpt>
      <trkpt lat="42.42232" lon="0.07359">
        <ele>659.3</ele>
        <time>2016-07-31T10:56:06Z</time>
      </trkpt>
      <trkpt lat="42.42231" lon="0.07355">
        <ele>659.9</ele>
        <time>2016-07-31T10:56:09Z</time>
      </trkpt>
      <trkpt lat="42.42231" lon="0.07349">
        <ele>660.6</ele>
        <time>2016-07-31T10:56:12Z</time>
      </trkpt>
      <trkpt lat="42.42231" lon="0.07345">
        <ele>661.1</ele>
        <time>2016-07-31T10:56:14Z</time>
      </trkpt>
      <trkpt lat="42.42233" lon="0.07341">
        <ele>661.8</ele>
        <time>2016-07-31T10:56:16Z</time>
      </trkpt>
      <trkpt lat="42.42234" lon="0.07337">
        <ele>662.4</ele>
        <time>2016-07-31T10:56:18Z</time>
      </trkpt>
      <trkpt lat="42.42235" lon="0.07332">
        <ele>663.1</ele>
        <time>2016-07-31T10:56:20Z</time>
      </trkpt>
      <trkpt lat="42.42236" lon="0.07328">
        <ele>663.8</ele>
        <time>2016-07-31T10:56:22Z</time>
      </trkpt>
      <trkpt lat="42.42237" lon="0.07324">
        <ele>664.4</ele>
        <time>2016-07-31T10:56:24Z</time>
      </trkpt>
      <trkpt lat="42.42238" lon="0.0732">
        <ele>665</ele>
        <time>2016-07-31T10:56:26Z</time>
      </trkpt>
      <trkpt lat="42.42239" lon="0.07316">
        <ele>665.5</ele>
        <time>2016-07-31T10:56:28Z</time>
      </trkpt>
      <trkpt lat="42.42238" lon="0.07312">
        <ele>666</ele>
        <time>2016-07-31T10:56:30Z</time>
      </trkpt>
      <trkpt lat="42.42236" lon="0.07309">
        <ele>666.4</ele>
        <time>2016-07-31T10:56:32Z</time>
      </trkpt>
      <trkpt lat="42.42235" lon="0.07305">
        <ele>666.7</ele>
        <time>2016-07-31T10:56:34Z</time>
      </trkpt>
      <trkpt lat="42.42233" lon="0.07301">
        <ele>667.2</ele>
        <time>2016-07-31T10:56:36Z</time>
      </trkpt>
      <trkpt lat="42.42231" lon="0.07297">
        <ele>667.6</ele>
        <time>2016-07-31T10:56:38Z</time>
      </trkpt>
      <trkpt lat="42.42229" lon="0.07293">
        <ele>668</ele>
        <time>2016-07-31T10:56:40Z</time>
      </trkpt>
      <trkpt lat="42.42227" lon="0.0729">
        <ele>668.5</ele>
        <time>2016-07-31T10:56:42Z</time>
      </trkpt>
      <trkpt lat="42.42225" lon="0.07286">
        <ele>668.9</ele>
        <time>2016-07-31T10:56:44Z</time>
      </trkpt>
      <trkpt lat="42.42222" lon="0.07283">
        <ele>669.4</ele>
        <time>2016-07-31T10:56:46Z</time>
      </trkpt>
      <trkpt lat="42.42219" lon="0.07279">
        <ele>669.9</ele>
        <time>2016-07-31T10:56:48Z</time>
      </trkpt>
      <trkpt lat="42.42217" lon="0.07274">
        <ele>670.6</ele>
        <time>2016-07-31T10:56:50Z</time>
      </trkpt>
      <trkpt lat="42.42216" lon="0.07269">
        <ele>671.4</ele>
        <time>2016-07-31T10:56:52Z</time>
      </trkpt>
      <trkpt lat="42.42214" lon="0.07263">
        <ele>672.3</ele>
        <time>2016-07-31T10:56:54Z</time>
      </trkpt>
      <trkpt lat="42.42213" lon="0.07257">
        <ele>673.2</ele>
        <time>2016-07-31T10:56:56Z</time>
      </trkpt>
      <trkpt lat="42.42211" lon="0.07252">
        <ele>674</ele>
        <time>2016-07-31T10:56:58Z</time>
      </trkpt>
      <trkpt lat="42.42209" lon="0.07246">
        <ele>674.8</ele>
        <time>2016-07-31T10:57:00Z</time>
      </trkpt>
      <trkpt lat="42.42207" lon="0.0724">
        <ele>675.5</ele>
        <time>2016-07-31T10:57:02Z</time>
      </trkpt>
      <trkpt lat="42.42205" lon="0.07234">
        <ele>676.1</ele>
        <time>2016-07-31T10:57:04Z</time>
      </trkpt>
      <trkpt lat="42.42203" lon="0.07228">
        <ele>676.7</ele>
        <time>2016-07-31T10:57:06Z</time>
      </trkpt>
      <trkpt lat="42.422" lon="0.07222">
        <ele>677.2</ele>
        <time>2016-07-31T10:57:08Z</time>
      </trkpt>
      <trkpt lat="42.42197" lon="0.07216">
        <ele>677.7</ele>
        <time>2016-07-31T10:57:10Z</time>
      </trkpt>
      <trkpt lat="42.42193" lon="0.07211">
        <ele>677.9</ele>
        <time>2016-07-31T10:57:12Z</time>
      </trkpt>
      <trkpt lat="42.42189" lon="0.07207">
        <ele>677.9</ele>
        <time>2016-07-31T10:57:14Z</time>
      </trkpt>
      <trkpt lat="42.42187" lon="0.07205">
        <ele>677.8</ele>
        <time>2016-07-31T10:57:15Z</time>
      </trkpt>
      <trkpt lat="42.42184" lon="0.07203">
        <ele>677.7</ele>
        <time>2016-07-31T10:57:16Z</time>
      </trkpt>
      <trkpt lat="42.42181" lon="0.07201">
        <ele>677.6</ele>
        <time>2016-07-31T10:57:17Z</time>
      </trkpt>
      <trkpt lat="42.42178" lon="0.07199">
        <ele>677.4</ele>
        <time>2016-07-31T10:57:18Z</time>
      </trkpt>
      <trkpt lat="42.42175" lon="0.07197">
        <ele>677.2</ele>
        <time>2016-07-31T10:57:19Z</time>
      </trkpt>
      <trkpt lat="42.42173" lon="0.07195">
        <ele>677</ele>
        <time>2016-07-31T10:57:20Z</time>
      </trkpt>
      <trkpt lat="42.4217" lon="0.07193">
        <ele>677</ele>
        <time>2016-07-31T10:57:21Z</time>
      </trkpt>
      <trkpt lat="42.42167" lon="0.0719">
        <ele>676.9</ele>
        <time>2016-07-31T10:57:22Z</time>
      </trkpt>
      <trkpt lat="42.42165" lon="0.07188">
        <ele>676.9</ele>
        <time>2016-07-31T10:57:23Z</time>
      </trkpt>
      <trkpt lat="42.42162" lon="0.07186">
        <ele>676.7</ele>
        <time>2016-07-31T10:57:24Z</time>
      </trkpt>
      <trkpt lat="42.42159" lon="0.07184">
        <ele>676.6</ele>
        <time>2016-07-31T10:57:25Z</time>
      </trkpt>
      <trkpt lat="42.42157" lon="0.07183">
        <ele>676.4</ele>
        <time>2016-07-31T10:57:26Z</time>
      </trkpt>
      <trkpt lat="42.42154" lon="0.07182">
        <ele>676.2</ele>
        <time>2016-07-31T10:57:27Z</time>
      </trkpt>
      <trkpt lat="42.42151" lon="0.0718">
        <ele>675.9</ele>
        <time>2016-07-31T10:57:28Z</time>
      </trkpt>
      <trkpt lat="42.42148" lon="0.07179">
        <ele>675.6</ele>
        <time>2016-07-31T10:57:29Z</time>
      </trkpt>
      <trkpt lat="42.42146" lon="0.07178">
        <ele>675.3</ele>
        <time>2016-07-31T10:57:30Z</time>
      </trkpt>
      <trkpt lat="42.42143" lon="0.07177">
        <ele>675</ele>
        <time>2016-07-31T10:57:31Z</time>
      </trkpt>
      <trkpt lat="42.4214" lon="0.07176">
        <ele>674.7</ele>
        <time>2016-07-31T10:57:32Z</time>
      </trkpt>
      <trkpt lat="42.42137" lon="0.07175">
        <ele>674.5</ele>
        <time>2016-07-31T10:57:33Z</time>
      </trkpt>
      <trkpt lat="42.42134" lon="0.07173">
        <ele>674.3</ele>
        <time>2016-07-31T10:57:34Z</time>
      </trkpt>
      <trkpt lat="42.42131" lon="0.07171">
        <ele>674.2</ele>
        <time>2016-07-31T10:57:35Z</time>
      </trkpt>
      <trkpt lat="42.42128" lon="0.07169">
        <ele>674.1</ele>
        <time>2016-07-31T10:57:36Z</time>
      </trkpt>
      <trkpt lat="42.42125" lon="0.07167">
        <ele>674</ele>
        <time>2016-07-31T10:57:37Z</time>
      </trkpt>
      <trkpt lat="42.42122" lon="0.07164">
        <ele>674.3</ele>
        <time>2016-07-31T10:57:38Z</time>
      </trkpt>
      <trkpt lat="42.4212" lon="0.07161">
        <ele>674.7</ele>
        <time>2016-07-31T10:57:39Z</time>
      </trkpt>
      <trkpt lat="42.42117" lon="0.07157">
        <ele>675.2</ele>
        <time>2016-07-31T10:57:40Z</time>
      </trkpt>
      <trkpt lat="42.42115" lon="0.07153">
        <ele>675.7</ele>
        <time>2016-07-31T10:57:41Z</time>
      </trkpt>
      <trkpt lat="42.42114" lon="0.07149">
        <ele>676.2</ele>
        <time>2016-07-31T10:57:42Z</time>
      </trkpt>
      <trkpt lat="42.42113" lon="0.07146">
        <ele>676.8</ele>
        <time>2016-07-31T10:57:43Z</time>
      </trkpt>
      <trkpt lat="42.42114" lon="0.07142">
        <ele>677.4</ele>
        <time>2016-07-31T10:57:44Z</time>
      </trkpt>
      <trkpt lat="42.42115" lon="0.07138">
        <ele>678.1</ele>
        <time>2016-07-31T10:57:45Z</time>
      </trkpt>
      <trkpt lat="42.42116" lon="0.07135">
        <ele>678.8</ele>
        <time>2016-07-31T10:57:46Z</time>
      </trkpt>
      <trkpt lat="42.42118" lon="0.07131">
        <ele>679.5</ele>
        <time>2016-07-31T10:57:47Z</time>
      </trkpt>
      <trkpt lat="42.4212" lon="0.07128">
        <ele>680.1</ele>
        <time>2016-07-31T10:57:48Z</time>
      </trkpt>
      <trkpt lat="42.42122" lon="0.07121">
        <ele>681.3</ele>
        <time>2016-07-31T10:57:50Z</time>
      </trkpt>
      <trkpt lat="42.42124" lon="0.07115">
        <ele>682.5</ele>
        <time>2016-07-31T10:57:52Z</time>
      </trkpt>
      <trkpt lat="42.42126" lon="0.07109">
        <ele>683.5</ele>
        <time>2016-07-31T10:57:54Z</time>
      </trkpt>
      <trkpt lat="42.42128" lon="0.07104">
        <ele>684.7</ele>
        <time>2016-07-31T10:57:56Z</time>
      </trkpt>
      <trkpt lat="42.42129" lon="0.07099">
        <ele>685.7</ele>
        <time>2016-07-31T10:57:58Z</time>
      </trkpt>
      <trkpt lat="42.42131" lon="0.07094">
        <ele>686.7</ele>
        <time>2016-07-31T10:58:00Z</time>
      </trkpt>
      <trkpt lat="42.42132" lon="0.07088">
        <ele>687.8</ele>
        <time>2016-07-31T10:58:02Z</time>
      </trkpt>
      <trkpt lat="42.42133" lon="0.07082">
        <ele>688.9</ele>
        <time>2016-07-31T10:58:04Z</time>
      </trkpt>
      <trkpt lat="42.42135" lon="0.07076">
        <ele>690</ele>
        <time>2016-07-31T10:58:06Z</time>
      </trkpt>
      <trkpt lat="42.42136" lon="0.07071">
        <ele>691</ele>
        <time>2016-07-31T10:58:08Z</time>
      </trkpt>
      <trkpt lat="42.42136" lon="0.07066">
        <ele>691.8</ele>
        <time>2016-07-31T10:58:10Z</time>
      </trkpt>
      <trkpt lat="42.42135" lon="0.07063">
        <ele>692.1</ele>
        <time>2016-07-31T10:58:12Z</time>
      </trkpt>
      <trkpt lat="42.42132" lon="0.07061">
        <ele>692</ele>
        <time>2016-07-31T10:58:14Z</time>
      </trkpt>
      <trkpt lat="42.42128" lon="0.07059">
        <ele>691.8</ele>
        <time>2016-07-31T10:58:16Z</time>
      </trkpt>
      <trkpt lat="42.42125" lon="0.07057">
        <ele>691.7</ele>
        <time>2016-07-31T10:58:19Z</time>
      </trkpt>
      <trkpt lat="42.42121" lon="0.07055">
        <ele>691.6</ele>
        <time>2016-07-31T10:58:22Z</time>
      </trkpt>
      <trkpt lat="42.42118" lon="0.07052">
        <ele>691.6</ele>
        <time>2016-07-31T10:58:25Z</time>
      </trkpt>
      <trkpt lat="42.42115" lon="0.07049">
        <ele>691.9</ele>
        <time>2016-07-31T10:58:27Z</time>
      </trkpt>
      <trkpt lat="42.42113" lon="0.07045">
        <ele>692.2</ele>
        <time>2016-07-31T10:58:29Z</time>
      </trkpt>
      <trkpt lat="42.42111" lon="0.07041">
        <ele>692.6</ele>
        <time>2016-07-31T10:58:31Z</time>
      </trkpt>
      <trkpt lat="42.42108" lon="0.07037">
        <ele>692.9</ele>
        <time>2016-07-31T10:58:33Z</time>
      </trkpt>
      <trkpt lat="42.42106" lon="0.07034">
        <ele>693.4</ele>
        <time>2016-07-31T10:58:35Z</time>
      </trkpt>
      <trkpt lat="42.42103" lon="0.0703">
        <ele>693.8</ele>
        <time>2016-07-31T10:58:37Z</time>
      </trkpt>
      <trkpt lat="42.42101" lon="0.07026">
        <ele>694.2</ele>
        <time>2016-07-31T10:58:39Z</time>
      </trkpt>
      <trkpt lat="42.42099" lon="0.07022">
        <ele>694.8</ele>
        <time>2016-07-31T10:58:41Z</time>
      </trkpt>
      <trkpt lat="42.42097" lon="0.07017">
        <ele>695.4</ele>
        <time>2016-07-31T10:58:43Z</time>
      </trkpt>
      <trkpt lat="42.42095" lon="0.07013">
        <ele>695.9</ele>
        <time>2016-07-31T10:58:45Z</time>
      </trkpt>
      <trkpt lat="42.42093" lon="0.07008">
        <ele>696.5</ele>
        <time>2016-07-31T10:58:47Z</time>
      </trkpt>
      <trkpt lat="42.42091" lon="0.07003">
        <ele>697.1</ele>
        <time>2016-07-31T10:58:49Z</time>
      </trkpt>
      <trkpt lat="42.42088" lon="0.06999">
        <ele>697.7</ele>
        <time>2016-07-31T10:58:51Z</time>
      </trkpt>
      <trkpt lat="42.42086" lon="0.06994">
        <ele>698.2</ele>
        <time>2016-07-31T10:58:53Z</time>
      </trkpt>
      <trkpt lat="42.42083" lon="0.06989">
        <ele>698.7</ele>
        <time>2016-07-31T10:58:55Z</time>
      </trkpt>
      <trkpt lat="42.42081" lon="0.06983">
        <ele>699.3</ele>
        <time>2016-07-31T10:58:57Z</time>
      </trkpt>
      <trkpt lat="42.42078" lon="0.06979">
        <ele>699.7</ele>
        <time>2016-07-31T10:58:59Z</time>
      </trkpt>
      <trkpt lat="42.42075" lon="0.06975">
        <ele>700</ele>
        <time>2016-07-31T10:59:01Z</time>
      </trkpt>
      <trkpt lat="42.42072" lon="0.0697">
        <ele>700.3</ele>
        <time>2016-07-31T10:59:03Z</time>
      </trkpt>
      <trkpt lat="42.42068" lon="0.06966">
        <ele>700.5</ele>
        <time>2016-07-31T10:59:05Z</time>
      </trkpt>
      <trkpt lat="42.42064" lon="0.06962">
        <ele>700.7</ele>
        <time>2016-07-31T10:59:07Z</time>
      </trkpt>
      <trkpt lat="42.42061" lon="0.06957">
        <ele>701.2</ele>
        <time>2016-07-31T10:59:09Z</time>
      </trkpt>
      <trkpt lat="42.42058" lon="0.06951">
        <ele>702.3</ele>
        <time>2016-07-31T10:59:11Z</time>
      </trkpt>
      <trkpt lat="42.42055" lon="0.06945">
        <ele>703.3</ele>
        <time>2016-07-31T10:59:13Z</time>
      </trkpt>
      <trkpt lat="42.42052" lon="0.0694">
        <ele>704.2</ele>
        <time>2016-07-31T10:59:15Z</time>
      </trkpt>
      <trkpt lat="42.42049" lon="0.06937">
        <ele>704.4</ele>
        <time>2016-07-31T10:59:16Z</time>
      </trkpt>
      <trkpt lat="42.42047" lon="0.06935">
        <ele>704.7</ele>
        <time>2016-07-31T10:59:17Z</time>
      </trkpt>
      <trkpt lat="42.42044" lon="0.06932">
        <ele>704.9</ele>
        <time>2016-07-31T10:59:18Z</time>
      </trkpt>
      <trkpt lat="42.42041" lon="0.0693">
        <ele>705.1</ele>
        <time>2016-07-31T10:59:19Z</time>
      </trkpt>
      <trkpt lat="42.42038" lon="0.06927">
        <ele>705.5</ele>
        <time>2016-07-31T10:59:20Z</time>
      </trkpt>
      <trkpt lat="42.42035" lon="0.06925">
        <ele>705.8</ele>
        <time>2016-07-31T10:59:21Z</time>
      </trkpt>
      <trkpt lat="42.42032" lon="0.06923">
        <ele>706.1</ele>
        <time>2016-07-31T10:59:22Z</time>
      </trkpt>
      <trkpt lat="42.42029" lon="0.06921">
        <ele>706.2</ele>
        <time>2016-07-31T10:59:23Z</time>
      </trkpt>
      <trkpt lat="42.42027" lon="0.0692">
        <ele>706.2</ele>
        <time>2016-07-31T10:59:24Z</time>
      </trkpt>
      <trkpt lat="42.42022" lon="0.06919">
        <ele>706.1</ele>
        <time>2016-07-31T10:59:26Z</time>
      </trkpt>
      <trkpt lat="42.42017" lon="0.06917">
        <ele>706.2</ele>
        <time>2016-07-31T10:59:28Z</time>
      </trkpt>
      <trkpt lat="42.42013" lon="0.06915">
        <ele>706.2</ele>
        <time>2016-07-31T10:59:30Z</time>
      </trkpt>
      <trkpt lat="42.42009" lon="0.06912">
        <ele>706.4</ele>
        <time>2016-07-31T10:59:32Z</time>
      </trkpt>
      <trkpt lat="42.42006" lon="0.06908">
        <ele>707</ele>
        <time>2016-07-31T10:59:34Z</time>
      </trkpt>
      <trkpt lat="42.42003" lon="0.06903">
        <ele>707.6</ele>
        <time>2016-07-31T10:59:36Z</time>
      </trkpt>
      <trkpt lat="42.42" lon="0.069">
        <ele>708</ele>
        <time>2016-07-31T10:59:38Z</time>
      </trkpt>
      <trkpt lat="42.41997" lon="0.06897">
        <ele>708.2</ele>
        <time>2016-07-31T10:59:40Z</time>
      </trkpt>
      <trkpt lat="42.41994" lon="0.06893">
        <ele>708.5</ele>
        <time>2016-07-31T10:59:42Z</time>
      </trkpt>
      <trkpt lat="42.41991" lon="0.0689">
        <ele>708.8</ele>
        <time>2016-07-31T10:59:44Z</time>
      </trkpt>
      <trkpt lat="42.41988" lon="0.06887">
        <ele>709.1</ele>
        <time>2016-07-31T10:59:46Z</time>
      </trkpt>
      <trkpt lat="42.41986" lon="0.06883">
        <ele>709.4</ele>
        <time>2016-07-31T10:59:48Z</time>
      </trkpt>
      <trkpt lat="42.41983" lon="0.0688">
        <ele>709.8</ele>
        <time>2016-07-31T10:59:50Z</time>
      </trkpt>
      <trkpt lat="42.41981" lon="0.06876">
        <ele>710.1</ele>
        <time>2016-07-31T10:59:52Z</time>
      </trkpt>
      <trkpt lat="42.4198" lon="0.06873">
        <ele>710.6</ele>
        <time>2016-07-31T10:59:54Z</time>
      </trkpt>
      <trkpt lat="42.41978" lon="0.06869">
        <ele>711.1</ele>
        <time>2016-07-31T10:59:56Z</time>
      </trkpt>
      <trkpt lat="42.41976" lon="0.06866">
        <ele>711.6</ele>
        <time>2016-07-31T10:59:58Z</time>
      </trkpt>
      <trkpt lat="42.41975" lon="0.06862">
        <ele>712.2</ele>
        <time>2016-07-31T11:00:00Z</time>
      </trkpt>
      <trkpt lat="42.41973" lon="0.06857">
        <ele>713.1</ele>
        <time>2016-07-31T11:00:03Z</time>
      </trkpt>
      <trkpt lat="42.41972" lon="0.06853">
        <ele>713.8</ele>
        <time>2016-07-31T11:00:05Z</time>
      </trkpt>
      <trkpt lat="42.41971" lon="0.06849">
        <ele>714.5</ele>
        <time>2016-07-31T11:00:07Z</time>
      </trkpt>
      <trkpt lat="42.4197" lon="0.06846">
        <ele>715.2</ele>
        <time>2016-07-31T11:00:09Z</time>
      </trkpt>
      <trkpt lat="42.41969" lon="0.06842">
        <ele>715.7</ele>
        <time>2016-07-31T11:00:11Z</time>
      </trkpt>
      <trkpt lat="42.41968" lon="0.06838">
        <ele>716.4</ele>
        <time>2016-07-31T11:00:13Z</time>
      </trkpt>
      <trkpt lat="42.41966" lon="0.06834">
        <ele>717.1</ele>
        <time>2016-07-31T11:00:15Z</time>
      </trkpt>
      <trkpt lat="42.41965" lon="0.0683">
        <ele>717.7</ele>
        <time>2016-07-31T11:00:17Z</time>
      </trkpt>
      <trkpt lat="42.41964" lon="0.06826">
        <ele>718.4</ele>
        <time>2016-07-31T11:00:19Z</time>
      </trkpt>
      <trkpt lat="42.41963" lon="0.06823">
        <ele>719.1</ele>
        <time>2016-07-31T11:00:21Z</time>
      </trkpt>
      <trkpt lat="42.41962" lon="0.06819">
        <ele>719.6</ele>
        <time>2016-07-31T11:00:23Z</time>
      </trkpt>
      <trkpt lat="42.4196" lon="0.06815">
        <ele>720.2</ele>
        <time>2016-07-31T11:00:25Z</time>
      </trkpt>
      <trkpt lat="42.41959" lon="0.06811">
        <ele>720.9</ele>
        <time>2016-07-31T11:00:27Z</time>
      </trkpt>
      <trkpt lat="42.41957" lon="0.06806">
        <ele>721.8</ele>
        <time>2016-07-31T11:00:29Z</time>
      </trkpt>
      <trkpt lat="42.41957" lon="0.06802">
        <ele>722.7</ele>
        <time>2016-07-31T11:00:31Z</time>
      </trkpt>
      <trkpt lat="42.41956" lon="0.06797">
        <ele>723.7</ele>
        <time>2016-07-31T11:00:33Z</time>
      </trkpt>
      <trkpt lat="42.41956" lon="0.06792">
        <ele>724.7</ele>
        <time>2016-07-31T11:00:35Z</time>
      </trkpt>
      <trkpt lat="42.41955" lon="0.06788">
        <ele>725.9</ele>
        <time>2016-07-31T11:00:37Z</time>
      </trkpt>
      <trkpt lat="42.41954" lon="0.06783">
        <ele>727.3</ele>
        <time>2016-07-31T11:00:39Z</time>
      </trkpt>
      <trkpt lat="42.41952" lon="0.06777">
        <ele>728.6</ele>
        <time>2016-07-31T11:00:41Z</time>
      </trkpt>
      <trkpt lat="42.41948" lon="0.06772">
        <ele>729.9</ele>
        <time>2016-07-31T11:00:43Z</time>
      </trkpt>
      <trkpt lat="42.41944" lon="0.0677">
        <ele>730.1</ele>
        <time>2016-07-31T11:00:45Z</time>
      </trkpt>
      <trkpt lat="42.41939" lon="0.06771">
        <ele>729.7</ele>
        <time>2016-07-31T11:00:47Z</time>
      </trkpt>
      <trkpt lat="42.41934" lon="0.0677">
        <ele>729.4</ele>
        <time>2016-07-31T11:00:49Z</time>
      </trkpt>
      <trkpt lat="42.4193" lon="0.06771">
        <ele>728.9</ele>
        <time>2016-07-31T11:00:51Z</time>
      </trkpt>
      <trkpt lat="42.41926" lon="0.06772">
        <ele>728.5</ele>
        <time>2016-07-31T11:00:53Z</time>
      </trkpt>
      <trkpt lat="42.41922" lon="0.06772">
        <ele>728.2</ele>
        <time>2016-07-31T11:00:55Z</time>
      </trkpt>
      <trkpt lat="42.41919" lon="0.06771">
        <ele>728</ele>
        <time>2016-07-31T11:00:57Z</time>
      </trkpt>
      <trkpt lat="42.41915" lon="0.0677">
        <ele>728</ele>
        <time>2016-07-31T11:00:59Z</time>
      </trkpt>
      <trkpt lat="42.41912" lon="0.0677">
        <ele>728</ele>
        <time>2016-07-31T11:01:01Z</time>
      </trkpt>
      <trkpt lat="42.41908" lon="0.06768">
        <ele>728.3</ele>
        <time>2016-07-31T11:01:03Z</time>
      </trkpt>
      <trkpt lat="42.41904" lon="0.06765">
        <ele>728.8</ele>
        <time>2016-07-31T11:01:05Z</time>
      </trkpt>
      <trkpt lat="42.419" lon="0.06762">
        <ele>729.4</ele>
        <time>2016-07-31T11:01:07Z</time>
      </trkpt>
      <trkpt lat="42.41897" lon="0.0676">
        <ele>729.7</ele>
        <time>2016-07-31T11:01:08Z</time>
      </trkpt>
      <trkpt lat="42.41895" lon="0.06758">
        <ele>730.1</ele>
        <time>2016-07-31T11:01:09Z</time>
      </trkpt>
      <trkpt lat="42.41892" lon="0.06756">
        <ele>730.4</ele>
        <time>2016-07-31T11:01:10Z</time>
      </trkpt>
      <trkpt lat="42.41888" lon="0.06753">
        <ele>731.1</ele>
        <time>2016-07-31T11:01:12Z</time>
      </trkpt>
      <trkpt lat="42.41883" lon="0.0675">
        <ele>731.7</ele>
        <time>2016-07-31T11:01:14Z</time>
      </trkpt>
      <trkpt lat="42.41881" lon="0.06748">
        <ele>731.9</ele>
        <time>2016-07-31T11:01:15Z</time>
      </trkpt>
      <trkpt lat="42.41878" lon="0.06747">
        <ele>732.2</ele>
        <time>2016-07-31T11:01:16Z</time>
      </trkpt>
      <trkpt lat="42.41876" lon="0.06745">
        <ele>732.6</ele>
        <time>2016-07-31T11:01:17Z</time>
      </trkpt>
      <trkpt lat="42.41872" lon="0.0674">
        <ele>734</ele>
        <time>2016-07-31T11:01:19Z</time>
      </trkpt>
      <trkpt lat="42.41868" lon="0.06736">
        <ele>735.2</ele>
        <time>2016-07-31T11:01:21Z</time>
      </trkpt>
      <trkpt lat="42.41866" lon="0.06734">
        <ele>735.8</ele>
        <time>2016-07-31T11:01:22Z</time>
      </trkpt>
      <trkpt lat="42.41864" lon="0.06732">
        <ele>736.4</ele>
        <time>2016-07-31T11:01:23Z</time>
      </trkpt>
      <trkpt lat="42.4186" lon="0.06727">
        <ele>737.7</ele>
        <time>2016-07-31T11:01:25Z</time>
      </trkpt>
      <trkpt lat="42.41857" lon="0.06723">
        <ele>738.9</ele>
        <time>2016-07-31T11:01:27Z</time>
      </trkpt>
      <trkpt lat="42.41853" lon="0.06719">
        <ele>739.9</ele>
        <time>2016-07-31T11:01:29Z</time>
      </trkpt>
      <trkpt lat="42.4185" lon="0.06714">
        <ele>740.9</ele>
        <time>2016-07-31T11:01:31Z</time>
      </trkpt>
      <trkpt lat="42.41847" lon="0.0671">
        <ele>742</ele>
        <time>2016-07-31T11:01:33Z</time>
      </trkpt>
      <trkpt lat="42.41844" lon="0.06705">
        <ele>743.2</ele>
        <time>2016-07-31T11:01:35Z</time>
      </trkpt>
      <trkpt lat="42.41842" lon="0.06702">
        <ele>744.2</ele>
        <time>2016-07-31T11:01:37Z</time>
      </trkpt>
      <trkpt lat="42.41839" lon="0.06698">
        <ele>745.2</ele>
        <time>2016-07-31T11:01:39Z</time>
      </trkpt>
      <trkpt lat="42.41835" lon="0.06696">
        <ele>745.8</ele>
        <time>2016-07-31T11:01:41Z</time>
      </trkpt>
      <trkpt lat="42.4183" lon="0.06694">
        <ele>746.2</ele>
        <time>2016-07-31T11:01:43Z</time>
      </trkpt>
      <trkpt lat="42.41826" lon="0.06692">
        <ele>746.6</ele>
        <time>2016-07-31T11:01:45Z</time>
      </trkpt>
      <trkpt lat="42.41821" lon="0.06691">
        <ele>746.7</ele>
        <time>2016-07-31T11:01:47Z</time>
      </trkpt>
      <trkpt lat="42.41816" lon="0.06691">
        <ele>746.6</ele>
        <time>2016-07-31T11:01:49Z</time>
      </trkpt>
      <trkpt lat="42.41811" lon="0.0669">
        <ele>746.8</ele>
        <time>2016-07-31T11:01:51Z</time>
      </trkpt>
      <trkpt lat="42.41807" lon="0.06688">
        <ele>747.4</ele>
        <time>2016-07-31T11:01:53Z</time>
      </trkpt>
      <trkpt lat="42.41804" lon="0.06686">
        <ele>747.9</ele>
        <time>2016-07-31T11:01:55Z</time>
      </trkpt>
      <trkpt lat="42.41801" lon="0.06684">
        <ele>748.3</ele>
        <time>2016-07-31T11:01:57Z</time>
      </trkpt>
      <trkpt lat="42.41796" lon="0.06683">
        <ele>748.4</ele>
        <time>2016-07-31T11:01:59Z</time>
      </trkpt>
      <trkpt lat="42.41792" lon="0.06683">
        <ele>748.2</ele>
        <time>2016-07-31T11:02:01Z</time>
      </trkpt>
      <trkpt lat="42.41789" lon="0.06682">
        <ele>748.7</ele>
        <time>2016-07-31T11:02:04Z</time>
      </trkpt>
      <trkpt lat="42.41787" lon="0.06678">
        <ele>749.9</ele>
        <time>2016-07-31T11:02:06Z</time>
      </trkpt>
      <trkpt lat="42.41786" lon="0.06675">
        <ele>751</ele>
        <time>2016-07-31T11:02:09Z</time>
      </trkpt>
      <trkpt lat="42.41784" lon="0.06672">
        <ele>751.8</ele>
        <time>2016-07-31T11:02:11Z</time>
      </trkpt>
      <trkpt lat="42.41781" lon="0.0667">
        <ele>752.5</ele>
        <time>2016-07-31T11:02:13Z</time>
      </trkpt>
      <trkpt lat="42.41778" lon="0.06669">
        <ele>752.9</ele>
        <time>2016-07-31T11:02:15Z</time>
      </trkpt>
      <trkpt lat="42.41775" lon="0.06667">
        <ele>753.4</ele>
        <time>2016-07-31T11:02:17Z</time>
      </trkpt>
      <trkpt lat="42.41772" lon="0.06664">
        <ele>754.2</ele>
        <time>2016-07-31T11:02:19Z</time>
      </trkpt>
      <trkpt lat="42.4177" lon="0.06662">
        <ele>754.8</ele>
        <time>2016-07-31T11:02:21Z</time>
      </trkpt>
      <trkpt lat="42.41767" lon="0.0666">
        <ele>755.3</ele>
        <time>2016-07-31T11:02:23Z</time>
      </trkpt>
      <trkpt lat="42.41765" lon="0.06657">
        <ele>756.1</ele>
        <time>2016-07-31T11:02:25Z</time>
      </trkpt>
      <trkpt lat="42.41763" lon="0.06654">
        <ele>756.9</ele>
        <time>2016-07-31T11:02:27Z</time>
      </trkpt>
      <trkpt lat="42.41761" lon="0.06651">
        <ele>757.5</ele>
        <time>2016-07-31T11:02:29Z</time>
      </trkpt>
      <trkpt lat="42.41759" lon="0.06649">
        <ele>757.9</ele>
        <time>2016-07-31T11:02:31Z</time>
      </trkpt>
      <trkpt lat="42.41756" lon="0.06648">
        <ele>758.2</ele>
        <time>2016-07-31T11:02:33Z</time>
      </trkpt>
      <trkpt lat="42.41753" lon="0.06645">
        <ele>758.8</ele>
        <time>2016-07-31T11:02:35Z</time>
      </trkpt>
      <trkpt lat="42.4175" lon="0.06645">
        <ele>758.9</ele>
        <time>2016-07-31T11:02:38Z</time>
      </trkpt>
      <trkpt lat="42.41748" lon="0.06646">
        <ele>758.5</ele>
        <time>2016-07-31T11:02:41Z</time>
      </trkpt>
      <trkpt lat="42.41745" lon="0.06648">
        <ele>758.2</ele>
        <time>2016-07-31T11:02:43Z</time>
      </trkpt>
      <trkpt lat="42.41742" lon="0.06649">
        <ele>758</ele>
        <time>2016-07-31T11:02:45Z</time>
      </trkpt>
      <trkpt lat="42.41739" lon="0.06649">
        <ele>757.9</ele>
        <time>2016-07-31T11:02:47Z</time>
      </trkpt>
      <trkpt lat="42.41736" lon="0.06651">
        <ele>757.6</ele>
        <time>2016-07-31T11:02:50Z</time>
      </trkpt>
      <trkpt lat="42.41732" lon="0.0665">
        <ele>757.7</ele>
        <time>2016-07-31T11:02:53Z</time>
      </trkpt>
      <trkpt lat="42.41729" lon="0.0665">
        <ele>757.7</ele>
        <time>2016-07-31T11:02:55Z</time>
      </trkpt>
      <trkpt lat="42.41726" lon="0.0665">
        <ele>757.8</ele>
        <time>2016-07-31T11:02:57Z</time>
      </trkpt>
      <trkpt lat="42.41723" lon="0.06649">
        <ele>757.9</ele>
        <time>2016-07-31T11:02:59Z</time>
      </trkpt>
      <trkpt lat="42.41718" lon="0.06649">
        <ele>757.8</ele>
        <time>2016-07-31T11:03:01Z</time>
      </trkpt>
      <trkpt lat="42.41714" lon="0.0665">
        <ele>757.8</ele>
        <time>2016-07-31T11:03:03Z</time>
      </trkpt>
      <trkpt lat="42.41709" lon="0.0665">
        <ele>757.7</ele>
        <time>2016-07-31T11:03:05Z</time>
      </trkpt>
      <trkpt lat="42.41704" lon="0.06651">
        <ele>756.9</ele>
        <time>2016-07-31T11:03:07Z</time>
      </trkpt>
      <trkpt lat="42.41699" lon="0.06653">
        <ele>756.1</ele>
        <time>2016-07-31T11:03:09Z</time>
      </trkpt>
      <trkpt lat="42.41696" lon="0.06654">
        <ele>755.5</ele>
        <time>2016-07-31T11:03:10Z</time>
      </trkpt>
      <trkpt lat="42.41692" lon="0.06654">
        <ele>755</ele>
        <time>2016-07-31T11:03:12Z</time>
      </trkpt>
      <trkpt lat="42.4169" lon="0.06652">
        <ele>754.9</ele>
        <time>2016-07-31T11:03:15Z</time>
      </trkpt>
      <trkpt lat="42.41687" lon="0.0665">
        <ele>754.7</ele>
        <time>2016-07-31T11:03:19Z</time>
      </trkpt>
      <trkpt lat="42.41684" lon="0.06651">
        <ele>754.3</ele>
        <time>2016-07-31T11:03:21Z</time>
      </trkpt>
      <trkpt lat="42.41681" lon="0.06651">
        <ele>753.7</ele>
        <time>2016-07-31T11:03:23Z</time>
      </trkpt>
      <trkpt lat="42.41677" lon="0.06651">
        <ele>753.2</ele>
        <time>2016-07-31T11:03:26Z</time>
      </trkpt>
      <trkpt lat="42.41675" lon="0.06652">
        <ele>752.7</ele>
        <time>2016-07-31T11:03:28Z</time>
      </trkpt>
      <trkpt lat="42.41671" lon="0.06652">
        <ele>752.2</ele>
        <time>2016-07-31T11:03:31Z</time>
      </trkpt>
      <trkpt lat="42.41669" lon="0.0665">
        <ele>752.3</ele>
        <time>2016-07-31T11:03:33Z</time>
      </trkpt>
      <trkpt lat="42.41665" lon="0.06647">
        <ele>752.3</ele>
        <time>2016-07-31T11:03:36Z</time>
      </trkpt>
      <trkpt lat="42.41661" lon="0.06645">
        <ele>752.2</ele>
        <time>2016-07-31T11:03:38Z</time>
      </trkpt>
      <trkpt lat="42.41657" lon="0.0664">
        <ele>752.5</ele>
        <time>2016-07-31T11:03:40Z</time>
      </trkpt>
      <trkpt lat="42.41655" lon="0.06637">
        <ele>752.9</ele>
        <time>2016-07-31T11:03:41Z</time>
      </trkpt>
      <trkpt lat="42.41652" lon="0.06632">
        <ele>753.5</ele>
        <time>2016-07-31T11:03:43Z</time>
      </trkpt>
      <trkpt lat="42.4165" lon="0.06629">
        <ele>754</ele>
        <time>2016-07-31T11:03:45Z</time>
      </trkpt>
      <trkpt lat="42.41648" lon="0.06625">
        <ele>754.5</ele>
        <time>2016-07-31T11:03:47Z</time>
      </trkpt>
      <trkpt lat="42.41646" lon="0.06621">
        <ele>755.3</ele>
        <time>2016-07-31T11:03:49Z</time>
      </trkpt>
      <trkpt lat="42.41646" lon="0.06618">
        <ele>756.2</ele>
        <time>2016-07-31T11:03:51Z</time>
      </trkpt>
      <trkpt lat="42.41646" lon="0.06614">
        <ele>757.3</ele>
        <time>2016-07-31T11:03:53Z</time>
      </trkpt>
      <trkpt lat="42.41644" lon="0.0661">
        <ele>757.9</ele>
        <time>2016-07-31T11:03:55Z</time>
      </trkpt>
      <trkpt lat="42.41642" lon="0.06607">
        <ele>758.6</ele>
        <time>2016-07-31T11:03:57Z</time>
      </trkpt>
      <trkpt lat="42.41641" lon="0.06603">
        <ele>759.6</ele>
        <time>2016-07-31T11:03:59Z</time>
      </trkpt>
      <trkpt lat="42.4164" lon="0.06599">
        <ele>760.4</ele>
        <time>2016-07-31T11:04:01Z</time>
      </trkpt>
      <trkpt lat="42.41639" lon="0.06595">
        <ele>761.3</ele>
        <time>2016-07-31T11:04:03Z</time>
      </trkpt>
      <trkpt lat="42.4164" lon="0.06591">
        <ele>762.6</ele>
        <time>2016-07-31T11:04:09Z</time>
      </trkpt>
      <trkpt lat="42.4164" lon="0.06587">
        <ele>763.6</ele>
        <time>2016-07-31T11:04:12Z</time>
      </trkpt>
      <trkpt lat="42.41638" lon="0.06583">
        <ele>764.2</ele>
        <time>2016-07-31T11:04:16Z</time>
      </trkpt>
      <trkpt lat="42.41635" lon="0.06581">
        <ele>764.6</ele>
        <time>2016-07-31T11:04:19Z</time>
      </trkpt>
      <trkpt lat="42.41633" lon="0.06577">
        <ele>765.3</ele>
        <time>2016-07-31T11:04:22Z</time>
      </trkpt>
      <trkpt lat="42.41631" lon="0.06573">
        <ele>765.9</ele>
        <time>2016-07-31T11:04:26Z</time>
      </trkpt>
      <trkpt lat="42.41629" lon="0.0657">
        <ele>766.3</ele>
        <time>2016-07-31T11:04:29Z</time>
      </trkpt>
      <trkpt lat="42.41627" lon="0.06567">
        <ele>766.9</ele>
        <time>2016-07-31T11:04:32Z</time>
      </trkpt>
      <trkpt lat="42.41627" lon="0.06563">
        <ele>767.9</ele>
        <time>2016-07-31T11:04:36Z</time>
      </trkpt>
      <trkpt lat="42.41628" lon="0.06558">
        <ele>769.3</ele>
        <time>2016-07-31T11:04:40Z</time>
      </trkpt>
      <trkpt lat="42.41629" lon="0.06554">
        <ele>770.4</ele>
        <time>2016-07-31T11:04:44Z</time>
      </trkpt>
      <trkpt lat="42.41628" lon="0.06551">
        <ele>771.2</ele>
        <time>2016-07-31T11:04:49Z</time>
      </trkpt>
      <trkpt lat="42.41625" lon="0.06549">
        <ele>771</ele>
        <time>2016-07-31T11:04:56Z</time>
      </trkpt>
      <trkpt lat="42.41622" lon="0.06547">
        <ele>771.2</ele>
        <time>2016-07-31T11:05:01Z</time>
      </trkpt>
      <trkpt lat="42.4162" lon="0.06543">
        <ele>771.9</ele>
        <time>2016-07-31T11:05:04Z</time>
      </trkpt>
      <trkpt lat="42.41619" lon="0.06539">
        <ele>772.4</ele>
        <time>2016-07-31T11:05:06Z</time>
      </trkpt>
      <trkpt lat="42.41619" lon="0.06534">
        <ele>773</ele>
        <time>2016-07-31T11:05:09Z</time>
      </trkpt>
      <trkpt lat="42.41618" lon="0.0653">
        <ele>773.3</ele>
        <time>2016-07-31T11:05:11Z</time>
      </trkpt>
      <trkpt lat="42.41615" lon="0.06526">
        <ele>773.5</ele>
        <time>2016-07-31T11:05:13Z</time>
      </trkpt>
      <trkpt lat="42.41613" lon="0.06523">
        <ele>773.7</ele>
        <time>2016-07-31T11:05:15Z</time>
      </trkpt>
      <trkpt lat="42.41611" lon="0.06519">
        <ele>773.9</ele>
        <time>2016-07-31T11:05:17Z</time>
      </trkpt>
      <trkpt lat="42.41608" lon="0.06515">
        <ele>774.1</ele>
        <time>2016-07-31T11:05:19Z</time>
      </trkpt>
      <trkpt lat="42.41606" lon="0.0651">
        <ele>774.5</ele>
        <time>2016-07-31T11:05:21Z</time>
      </trkpt>
      <trkpt lat="42.41605" lon="0.06507">
        <ele>774.8</ele>
        <time>2016-07-31T11:05:23Z</time>
      </trkpt>
      <trkpt lat="42.41603" lon="0.06504">
        <ele>775.1</ele>
        <time>2016-07-31T11:05:25Z</time>
      </trkpt>
      <trkpt lat="42.416" lon="0.06501">
        <ele>775.1</ele>
        <time>2016-07-31T11:05:28Z</time>
      </trkpt>
      <trkpt lat="42.41597" lon="0.06498">
        <ele>775.1</ele>
        <time>2016-07-31T11:05:30Z</time>
      </trkpt>
      <trkpt lat="42.41595" lon="0.06495">
        <ele>775.3</ele>
        <time>2016-07-31T11:05:32Z</time>
      </trkpt>
      <trkpt lat="42.41593" lon="0.06492">
        <ele>775.6</ele>
        <time>2016-07-31T11:05:34Z</time>
      </trkpt>
      <trkpt lat="42.41591" lon="0.06488">
        <ele>776</ele>
        <time>2016-07-31T11:05:36Z</time>
      </trkpt>
      <trkpt lat="42.41589" lon="0.06485">
        <ele>776.2</ele>
        <time>2016-07-31T11:05:38Z</time>
      </trkpt>
      <trkpt lat="42.41586" lon="0.06482">
        <ele>776.2</ele>
        <time>2016-07-31T11:05:40Z</time>
      </trkpt>
      <trkpt lat="42.41583" lon="0.06479">
        <ele>776.5</ele>
        <time>2016-07-31T11:05:43Z</time>
      </trkpt>
      <trkpt lat="42.4158" lon="0.06476">
        <ele>776.6</ele>
        <time>2016-07-31T11:05:46Z</time>
      </trkpt>
      <trkpt lat="42.41576" lon="0.06473">
        <ele>776.7</ele>
        <time>2016-07-31T11:05:49Z</time>
      </trkpt>
      <trkpt lat="42.41573" lon="0.06471">
        <ele>776.8</ele>
        <time>2016-07-31T11:05:51Z</time>
      </trkpt>
      <trkpt lat="42.41571" lon="0.06468">
        <ele>777.1</ele>
        <time>2016-07-31T11:05:53Z</time>
      </trkpt>
      <trkpt lat="42.41569" lon="0.06465">
        <ele>777.4</ele>
        <time>2016-07-31T11:05:55Z</time>
      </trkpt>
      <trkpt lat="42.41566" lon="0.06462">
        <ele>777.6</ele>
        <time>2016-07-31T11:05:58Z</time>
      </trkpt>
      <trkpt lat="42.41564" lon="0.06459">
        <ele>778.1</ele>
        <time>2016-07-31T11:06:01Z</time>
      </trkpt>
      <trkpt lat="42.41562" lon="0.06455">
        <ele>778</ele>
        <time>2016-07-31T11:06:04Z</time>
      </trkpt>
      <trkpt lat="42.4156" lon="0.06452">
        <ele>777.9</ele>
        <time>2016-07-31T11:06:06Z</time>
      </trkpt>
      <trkpt lat="42.41558" lon="0.06449">
        <ele>777.9</ele>
        <time>2016-07-31T11:06:08Z</time>
      </trkpt>
      <trkpt lat="42.41557" lon="0.06443">
        <ele>778.1</ele>
        <time>2016-07-31T11:06:11Z</time>
      </trkpt>
      <trkpt lat="42.41556" lon="0.06439">
        <ele>778.2</ele>
        <time>2016-07-31T11:06:14Z</time>
      </trkpt>
      <trkpt lat="42.41554" lon="0.06435">
        <ele>778.3</ele>
        <time>2016-07-31T11:06:16Z</time>
      </trkpt>
      <trkpt lat="42.41552" lon="0.06431">
        <ele>778.5</ele>
        <time>2016-07-31T11:06:18Z</time>
      </trkpt>
      <trkpt lat="42.4155" lon="0.06427">
        <ele>778.7</ele>
        <time>2016-07-31T11:06:20Z</time>
      </trkpt>
      <trkpt lat="42.41548" lon="0.06423">
        <ele>778.9</ele>
        <time>2016-07-31T11:06:22Z</time>
      </trkpt>
      <trkpt lat="42.41547" lon="0.06419">
        <ele>779.2</ele>
        <time>2016-07-31T11:06:25Z</time>
      </trkpt>
      <trkpt lat="42.41547" lon="0.06415">
        <ele>779.5</ele>
        <time>2016-07-31T11:06:27Z</time>
      </trkpt>
      <trkpt lat="42.41546" lon="0.0641">
        <ele>779.9</ele>
        <time>2016-07-31T11:06:29Z</time>
      </trkpt>
      <trkpt lat="42.41545" lon="0.06406">
        <ele>780.2</ele>
        <time>2016-07-31T11:06:31Z</time>
      </trkpt>
      <trkpt lat="42.41543" lon="0.06402">
        <ele>780.6</ele>
        <time>2016-07-31T11:06:33Z</time>
      </trkpt>
      <trkpt lat="42.41542" lon="0.06398">
        <ele>781.1</ele>
        <time>2016-07-31T11:06:35Z</time>
      </trkpt>
      <trkpt lat="42.41541" lon="0.06394">
        <ele>781.5</ele>
        <time>2016-07-31T11:06:37Z</time>
      </trkpt>
      <trkpt lat="42.41538" lon="0.06391">
        <ele>781.9</ele>
        <time>2016-07-31T11:06:39Z</time>
      </trkpt>
      <trkpt lat="42.41536" lon="0.06388">
        <ele>782.5</ele>
        <time>2016-07-31T11:06:41Z</time>
      </trkpt>
      <trkpt lat="42.41535" lon="0.06383">
        <ele>783</ele>
        <time>2016-07-31T11:06:43Z</time>
      </trkpt>
      <trkpt lat="42.41533" lon="0.0638">
        <ele>783.6</ele>
        <time>2016-07-31T11:06:45Z</time>
      </trkpt>
      <trkpt lat="42.41531" lon="0.06377">
        <ele>784.2</ele>
        <time>2016-07-31T11:06:47Z</time>
      </trkpt>
      <trkpt lat="42.41533" lon="0.06375">
        <ele>784</ele>
        <time>2016-07-31T11:06:53Z</time>
      </trkpt>
      <trkpt lat="42.41536" lon="0.06377">
        <ele>783.5</ele>
        <time>2016-07-31T11:06:55Z</time>
      </trkpt>
      <trkpt lat="42.41538" lon="0.06378">
        <ele>783.1</ele>
        <time>2016-07-31T11:06:57Z</time>
      </trkpt>
      <trkpt lat="42.41541" lon="0.06381">
        <ele>782.6</ele>
        <time>2016-07-31T11:08:33Z</time>
      </trkpt>
      <trkpt lat="42.41543" lon="0.06384">
        <ele>782.1</ele>
        <time>2016-07-31T11:08:38Z</time>
      </trkpt>
      <trkpt lat="42.41546" lon="0.06385">
        <ele>781.6</ele>
        <time>2016-07-31T11:08:40Z</time>
      </trkpt>
      <trkpt lat="42.41549" lon="0.06388">
        <ele>781.1</ele>
        <time>2016-07-31T11:08:42Z</time>
      </trkpt>
      <trkpt lat="42.41552" lon="0.0639">
        <ele>780.6</ele>
        <time>2016-07-31T11:08:44Z</time>
      </trkpt>
      <trkpt lat="42.41556" lon="0.06392">
        <ele>780.2</ele>
        <time>2016-07-31T11:08:46Z</time>
      </trkpt>
      <trkpt lat="42.41559" lon="0.06395">
        <ele>779.8</ele>
        <time>2016-07-31T11:08:48Z</time>
      </trkpt>
      <trkpt lat="42.41563" lon="0.06397">
        <ele>779.5</ele>
        <time>2016-07-31T11:08:50Z</time>
      </trkpt>
      <trkpt lat="42.41566" lon="0.06399">
        <ele>779.2</ele>
        <time>2016-07-31T11:08:52Z</time>
      </trkpt>
      <trkpt lat="42.4157" lon="0.06399">
        <ele>778.9</ele>
        <time>2016-07-31T11:08:54Z</time>
      </trkpt>
      <trkpt lat="42.41573" lon="0.064">
        <ele>778.7</ele>
        <time>2016-07-31T11:08:56Z</time>
      </trkpt>
      <trkpt lat="42.41576" lon="0.06402">
        <ele>778.5</ele>
        <time>2016-07-31T11:08:58Z</time>
      </trkpt>
      <trkpt lat="42.41579" lon="0.06404">
        <ele>778.3</ele>
        <time>2016-07-31T11:09:00Z</time>
      </trkpt>
      <trkpt lat="42.41582" lon="0.06405">
        <ele>778.2</ele>
        <time>2016-07-31T11:09:02Z</time>
      </trkpt>
      <trkpt lat="42.41585" lon="0.06407">
        <ele>778.1</ele>
        <time>2016-07-31T11:09:04Z</time>
      </trkpt>
      <trkpt lat="42.41588" lon="0.06408">
        <ele>778</ele>
        <time>2016-07-31T11:09:06Z</time>
      </trkpt>
      <trkpt lat="42.41591" lon="0.06408">
        <ele>777.8</ele>
        <time>2016-07-31T11:09:08Z</time>
      </trkpt>
      <trkpt lat="42.41595" lon="0.06409">
        <ele>777.7</ele>
        <time>2016-07-31T11:09:10Z</time>
      </trkpt>
      <trkpt lat="42.41597" lon="0.0641">
        <ele>777.6</ele>
        <time>2016-07-31T11:09:12Z</time>
      </trkpt>
      <trkpt lat="42.416" lon="0.06411">
        <ele>777.6</ele>
        <time>2016-07-31T11:09:14Z</time>
      </trkpt>
      <trkpt lat="42.41603" lon="0.06413">
        <ele>777.7</ele>
        <time>2016-07-31T11:09:16Z</time>
      </trkpt>
      <trkpt lat="42.41606" lon="0.06415">
        <ele>777.7</ele>
        <time>2016-07-31T11:09:18Z</time>
      </trkpt>
      <trkpt lat="42.4161" lon="0.06416">
        <ele>777.8</ele>
        <time>2016-07-31T11:09:20Z</time>
      </trkpt>
      <trkpt lat="42.41613" lon="0.06418">
        <ele>777.9</ele>
        <time>2016-07-31T11:09:22Z</time>
      </trkpt>
      <trkpt lat="42.41617" lon="0.0642">
        <ele>778.1</ele>
        <time>2016-07-31T11:09:24Z</time>
      </trkpt>
      <trkpt lat="42.4162" lon="0.06421">
        <ele>778.2</ele>
        <time>2016-07-31T11:09:26Z</time>
      </trkpt>
      <trkpt lat="42.41623" lon="0.0642">
        <ele>778</ele>
        <time>2016-07-31T11:09:28Z</time>
      </trkpt>
      <trkpt lat="42.41626" lon="0.06419">
        <ele>778</ele>
        <time>2016-07-31T11:09:30Z</time>
      </trkpt>
      <trkpt lat="42.4163" lon="0.06419">
        <ele>778.4</ele>
        <time>2016-07-31T11:09:32Z</time>
      </trkpt>
      <trkpt lat="42.41634" lon="0.06419">
        <ele>778.9</ele>
        <time>2016-07-31T11:09:34Z</time>
      </trkpt>
      <trkpt lat="42.41637" lon="0.06421">
        <ele>779.6</ele>
        <time>2016-07-31T11:09:36Z</time>
      </trkpt>
      <trkpt lat="42.41641" lon="0.06423">
        <ele>780.5</ele>
        <time>2016-07-31T11:09:38Z</time>
      </trkpt>
      <trkpt lat="42.41644" lon="0.06426">
        <ele>781.3</ele>
        <time>2016-07-31T11:09:40Z</time>
      </trkpt>
      <trkpt lat="42.41647" lon="0.06428">
        <ele>782</ele>
        <time>2016-07-31T11:09:42Z</time>
      </trkpt>
      <trkpt lat="42.4165" lon="0.06426">
        <ele>782.1</ele>
        <time>2016-07-31T11:09:44Z</time>
      </trkpt>
      <trkpt lat="42.41652" lon="0.06422">
        <ele>781.7</ele>
        <time>2016-07-31T11:09:46Z</time>
      </trkpt>
      <trkpt lat="42.41655" lon="0.06419">
        <ele>781.6</ele>
        <time>2016-07-31T11:09:48Z</time>
      </trkpt>
      <trkpt lat="42.41659" lon="0.06421">
        <ele>782.2</ele>
        <time>2016-07-31T11:09:50Z</time>
      </trkpt>
      <trkpt lat="42.41662" lon="0.06424">
        <ele>783.1</ele>
        <time>2016-07-31T11:09:52Z</time>
      </trkpt>
      <trkpt lat="42.41665" lon="0.06426">
        <ele>783.9</ele>
        <time>2016-07-31T11:09:54Z</time>
      </trkpt>
      <trkpt lat="42.41669" lon="0.06426">
        <ele>784.3</ele>
        <time>2016-07-31T11:09:56Z</time>
      </trkpt>
      <trkpt lat="42.41673" lon="0.06426">
        <ele>784.7</ele>
        <time>2016-07-31T11:09:58Z</time>
      </trkpt>
      <trkpt lat="42.41676" lon="0.06425">
        <ele>785.1</ele>
        <time>2016-07-31T11:10:00Z</time>
      </trkpt>
      <trkpt lat="42.41679" lon="0.06424">
        <ele>785.3</ele>
        <time>2016-07-31T11:10:02Z</time>
      </trkpt>
      <trkpt lat="42.41683" lon="0.06425">
        <ele>785.8</ele>
        <time>2016-07-31T11:10:04Z</time>
      </trkpt>
      <trkpt lat="42.41686" lon="0.06427">
        <ele>786.6</ele>
        <time>2016-07-31T11:10:06Z</time>
      </trkpt>
      <trkpt lat="42.41689" lon="0.06429">
        <ele>787.3</ele>
        <time>2016-07-31T11:10:08Z</time>
      </trkpt>
      <trkpt lat="42.41692" lon="0.0643">
        <ele>787.9</ele>
        <time>2016-07-31T11:10:10Z</time>
      </trkpt>
      <trkpt lat="42.41696" lon="0.0643">
        <ele>788.4</ele>
        <time>2016-07-31T11:10:12Z</time>
      </trkpt>
      <trkpt lat="42.41699" lon="0.06431">
        <ele>788.9</ele>
        <time>2016-07-31T11:10:14Z</time>
      </trkpt>
      <trkpt lat="42.41703" lon="0.06432">
        <ele>789.6</ele>
        <time>2016-07-31T11:10:16Z</time>
      </trkpt>
      <trkpt lat="42.41706" lon="0.06434">
        <ele>790.3</ele>
        <time>2016-07-31T11:10:18Z</time>
      </trkpt>
      <trkpt lat="42.4171" lon="0.06434">
        <ele>790.8</ele>
        <time>2016-07-31T11:10:20Z</time>
      </trkpt>
      <trkpt lat="42.41714" lon="0.06434">
        <ele>791.2</ele>
        <time>2016-07-31T11:10:22Z</time>
      </trkpt>
      <trkpt lat="42.41718" lon="0.06434">
        <ele>791.7</ele>
        <time>2016-07-31T11:10:24Z</time>
      </trkpt>
      <trkpt lat="42.41721" lon="0.06436">
        <ele>792.4</ele>
        <time>2016-07-31T11:10:26Z</time>
      </trkpt>
      <trkpt lat="42.41725" lon="0.06437">
        <ele>792.9</ele>
        <time>2016-07-31T11:10:28Z</time>
      </trkpt>
      <trkpt lat="42.41727" lon="0.06436">
        <ele>793</ele>
        <time>2016-07-31T11:10:33Z</time>
      </trkpt>
      <trkpt lat="42.4173" lon="0.06433">
        <ele>792.8</ele>
        <time>2016-07-31T11:10:38Z</time>
      </trkpt>
      <trkpt lat="42.41732" lon="0.06431">
        <ele>792.8</ele>
        <time>2016-07-31T11:10:41Z</time>
      </trkpt>
      <trkpt lat="42.41735" lon="0.06429">
        <ele>792.7</ele>
        <time>2016-07-31T11:10:44Z</time>
      </trkpt>
      <trkpt lat="42.41738" lon="0.06426">
        <ele>792.5</ele>
        <time>2016-07-31T11:10:47Z</time>
      </trkpt>
      <trkpt lat="42.41741" lon="0.06426">
        <ele>792.8</ele>
        <time>2016-07-31T11:10:55Z</time>
      </trkpt>
      <trkpt lat="42.41744" lon="0.06423">
        <ele>792.7</ele>
        <time>2016-07-31T11:10:57Z</time>
      </trkpt>
      <trkpt lat="42.41748" lon="0.06421">
        <ele>792.8</ele>
        <time>2016-07-31T11:10:59Z</time>
      </trkpt>
      <trkpt lat="42.41753" lon="0.06419">
        <ele>793.1</ele>
        <time>2016-07-31T11:11:01Z</time>
      </trkpt>
      <trkpt lat="42.41756" lon="0.06418">
        <ele>793.2</ele>
        <time>2016-07-31T11:11:02Z</time>
      </trkpt>
      <trkpt lat="42.41759" lon="0.06416">
        <ele>793.2</ele>
        <time>2016-07-31T11:11:03Z</time>
      </trkpt>
      <trkpt lat="42.41761" lon="0.06414">
        <ele>793.1</ele>
        <time>2016-07-31T11:11:04Z</time>
      </trkpt>
      <trkpt lat="42.41764" lon="0.06411">
        <ele>792.9</ele>
        <time>2016-07-31T11:11:05Z</time>
      </trkpt>
      <trkpt lat="42.41768" lon="0.06409">
        <ele>792.9</ele>
        <time>2016-07-31T11:11:06Z</time>
      </trkpt>
      <trkpt lat="42.41772" lon="0.06408">
        <ele>793.2</ele>
        <time>2016-07-31T11:11:07Z</time>
      </trkpt>
      <trkpt lat="42.41777" lon="0.06407">
        <ele>793.6</ele>
        <time>2016-07-31T11:11:08Z</time>
      </trkpt>
      <trkpt lat="42.41781" lon="0.06406">
        <ele>794.1</ele>
        <time>2016-07-31T11:11:09Z</time>
      </trkpt>
      <trkpt lat="42.41786" lon="0.06406">
        <ele>794.6</ele>
        <time>2016-07-31T11:11:10Z</time>
      </trkpt>
      <trkpt lat="42.4179" lon="0.06406">
        <ele>795</ele>
        <time>2016-07-31T11:11:11Z</time>
      </trkpt>
      <trkpt lat="42.41794" lon="0.06407">
        <ele>795.5</ele>
        <time>2016-07-31T11:11:12Z</time>
      </trkpt>
      <trkpt lat="42.41797" lon="0.06408">
        <ele>796</ele>
        <time>2016-07-31T11:11:13Z</time>
      </trkpt>
      <trkpt lat="42.418" lon="0.0641">
        <ele>796.6</ele>
        <time>2016-07-31T11:11:14Z</time>
      </trkpt>
      <trkpt lat="42.41802" lon="0.06413">
        <ele>797.2</ele>
        <time>2016-07-31T11:11:15Z</time>
      </trkpt>
      <trkpt lat="42.41804" lon="0.06417">
        <ele>797.9</ele>
        <time>2016-07-31T11:11:16Z</time>
      </trkpt>
      <trkpt lat="42.41806" lon="0.0642">
        <ele>798.5</ele>
        <time>2016-07-31T11:11:17Z</time>
      </trkpt>
      <trkpt lat="42.41811" lon="0.06424">
        <ele>799.4</ele>
        <time>2016-07-31T11:11:19Z</time>
      </trkpt>
      <trkpt lat="42.41815" lon="0.06426">
        <ele>799.9</ele>
        <time>2016-07-31T11:11:20Z</time>
      </trkpt>
      <trkpt lat="42.41819" lon="0.06427">
        <ele>800.2</ele>
        <time>2016-07-31T11:11:21Z</time>
      </trkpt>
      <trkpt lat="42.41821" lon="0.06428">
        <ele>800.5</ele>
        <time>2016-07-31T11:11:23Z</time>
      </trkpt>
      <trkpt lat="42.41823" lon="0.06431">
        <ele>801</ele>
        <time>2016-07-31T11:11:25Z</time>
      </trkpt>
      <trkpt lat="42.41825" lon="0.06436">
        <ele>801.7</ele>
        <time>2016-07-31T11:11:27Z</time>
      </trkpt>
      <trkpt lat="42.41827" lon="0.06438">
        <ele>802</ele>
        <time>2016-07-31T11:11:28Z</time>
      </trkpt>
      <trkpt lat="42.41831" lon="0.06439">
        <ele>802.4</ele>
        <time>2016-07-31T11:11:29Z</time>
      </trkpt>
      <trkpt lat="42.41835" lon="0.0644">
        <ele>802.6</ele>
        <time>2016-07-31T11:11:30Z</time>
      </trkpt>
      <trkpt lat="42.4184" lon="0.06441">
        <ele>802.9</ele>
        <time>2016-07-31T11:11:31Z</time>
      </trkpt>
      <trkpt lat="42.41845" lon="0.06441">
        <ele>803.1</ele>
        <time>2016-07-31T11:11:32Z</time>
      </trkpt>
      <trkpt lat="42.4185" lon="0.06442">
        <ele>803.3</ele>
        <time>2016-07-31T11:11:33Z</time>
      </trkpt>
      <trkpt lat="42.41856" lon="0.06444">
        <ele>803.7</ele>
        <time>2016-07-31T11:11:34Z</time>
      </trkpt>
      <trkpt lat="42.41862" lon="0.06446">
        <ele>804</ele>
        <time>2016-07-31T11:11:35Z</time>
      </trkpt>
      <trkpt lat="42.41868" lon="0.0645">
        <ele>804.4</ele>
        <time>2016-07-31T11:11:36Z</time>
      </trkpt>
      <trkpt lat="42.41873" lon="0.06455">
        <ele>804.8</ele>
        <time>2016-07-31T11:11:37Z</time>
      </trkpt>
      <trkpt lat="42.41878" lon="0.06459">
        <ele>805</ele>
        <time>2016-07-31T11:11:38Z</time>
      </trkpt>
      <trkpt lat="42.41881" lon="0.06464">
        <ele>804.4</ele>
        <time>2016-07-31T11:11:39Z</time>
      </trkpt>
      <trkpt lat="42.41885" lon="0.06468">
        <ele>803.7</ele>
        <time>2016-07-31T11:11:40Z</time>
      </trkpt>
      <trkpt lat="42.41889" lon="0.06472">
        <ele>803.1</ele>
        <time>2016-07-31T11:11:41Z</time>
      </trkpt>
      <trkpt lat="42.41893" lon="0.06476">
        <ele>802.6</ele>
        <time>2016-07-31T11:11:42Z</time>
      </trkpt>
      <trkpt lat="42.41896" lon="0.06479">
        <ele>802.2</ele>
        <time>2016-07-31T11:11:43Z</time>
      </trkpt>
      <trkpt lat="42.419" lon="0.0648">
        <ele>802</ele>
        <time>2016-07-31T11:11:45Z</time>
      </trkpt>
      <trkpt lat="42.41904" lon="0.0648">
        <ele>802.3</ele>
        <time>2016-07-31T11:11:47Z</time>
      </trkpt>
      <trkpt lat="42.41907" lon="0.0648">
        <ele>802.5</ele>
        <time>2016-07-31T11:11:49Z</time>
      </trkpt>
      <trkpt lat="42.4191" lon="0.06481">
        <ele>802.5</ele>
        <time>2016-07-31T11:11:51Z</time>
      </trkpt>
      <trkpt lat="42.41914" lon="0.06483">
        <ele>802.3</ele>
        <time>2016-07-31T11:11:54Z</time>
      </trkpt>
      <trkpt lat="42.41918" lon="0.06483">
        <ele>802.6</ele>
        <time>2016-07-31T11:11:57Z</time>
      </trkpt>
      <trkpt lat="42.41922" lon="0.06483">
        <ele>802.8</ele>
        <time>2016-07-31T11:12:00Z</time>
      </trkpt>
      <trkpt lat="42.41926" lon="0.06484">
        <ele>802.8</ele>
        <time>2016-07-31T11:12:03Z</time>
      </trkpt>
      <trkpt lat="42.41928" lon="0.06484">
        <ele>803</ele>
        <time>2016-07-31T11:12:06Z</time>
      </trkpt>
      <trkpt lat="42.41932" lon="0.06483">
        <ele>803.5</ele>
        <time>2016-07-31T11:12:09Z</time>
      </trkpt>
      <trkpt lat="42.41935" lon="0.06484">
        <ele>803.5</ele>
        <time>2016-07-31T11:12:11Z</time>
      </trkpt>
      <trkpt lat="42.41939" lon="0.06485">
        <ele>803.3</ele>
        <time>2016-07-31T11:12:13Z</time>
      </trkpt>
      <trkpt lat="42.41943" lon="0.06486">
        <ele>803.4</ele>
        <time>2016-07-31T11:12:15Z</time>
      </trkpt>
      <trkpt lat="42.41949" lon="0.06486">
        <ele>803.9</ele>
        <time>2016-07-31T11:12:17Z</time>
      </trkpt>
      <trkpt lat="42.41953" lon="0.06484">
        <ele>804.7</ele>
        <time>2016-07-31T11:12:19Z</time>
      </trkpt>
      <trkpt lat="42.41957" lon="0.06484">
        <ele>804.9</ele>
        <time>2016-07-31T11:12:21Z</time>
      </trkpt>
      <trkpt lat="42.41962" lon="0.06485">
        <ele>805.2</ele>
        <time>2016-07-31T11:12:23Z</time>
      </trkpt>
      <trkpt lat="42.41965" lon="0.06485">
        <ele>805.4</ele>
        <time>2016-07-31T11:12:24Z</time>
      </trkpt>
      <trkpt lat="42.4197" lon="0.06483">
        <ele>806.3</ele>
        <time>2016-07-31T11:12:26Z</time>
      </trkpt>
      <trkpt lat="42.41973" lon="0.06479">
        <ele>807.8</ele>
        <time>2016-07-31T11:12:28Z</time>
      </trkpt>
      <trkpt lat="42.41975" lon="0.06475">
        <ele>809.2</ele>
        <time>2016-07-31T11:12:30Z</time>
      </trkpt>
      <trkpt lat="42.41981" lon="0.06474">
        <ele>809.9</ele>
        <time>2016-07-31T11:12:32Z</time>
      </trkpt>
      <trkpt lat="42.41986" lon="0.06474">
        <ele>810</ele>
        <time>2016-07-31T11:12:34Z</time>
      </trkpt>
      <trkpt lat="42.41989" lon="0.06475">
        <ele>810.1</ele>
        <time>2016-07-31T11:12:35Z</time>
      </trkpt>
      <trkpt lat="42.41992" lon="0.06476">
        <ele>810.1</ele>
        <time>2016-07-31T11:12:36Z</time>
      </trkpt>
      <trkpt lat="42.41997" lon="0.06476">
        <ele>810.4</ele>
        <time>2016-07-31T11:12:38Z</time>
      </trkpt>
      <trkpt lat="42.42" lon="0.06477">
        <ele>810.5</ele>
        <time>2016-07-31T11:12:39Z</time>
      </trkpt>
      <trkpt lat="42.42003" lon="0.06477">
        <ele>810.7</ele>
        <time>2016-07-31T11:12:40Z</time>
      </trkpt>
      <trkpt lat="42.42009" lon="0.06478">
        <ele>810.7</ele>
        <time>2016-07-31T11:12:42Z</time>
      </trkpt>
      <trkpt lat="42.42012" lon="0.0648">
        <ele>810.6</ele>
        <time>2016-07-31T11:12:43Z</time>
      </trkpt>
      <trkpt lat="42.42016" lon="0.06482">
        <ele>810.4</ele>
        <time>2016-07-31T11:12:44Z</time>
      </trkpt>
      <trkpt lat="42.42019" lon="0.06483">
        <ele>810.2</ele>
        <time>2016-07-31T11:12:45Z</time>
      </trkpt>
      <trkpt lat="42.42022" lon="0.06485">
        <ele>810</ele>
        <time>2016-07-31T11:12:46Z</time>
      </trkpt>
      <trkpt lat="42.42025" lon="0.06487">
        <ele>809.7</ele>
        <time>2016-07-31T11:12:47Z</time>
      </trkpt>
      <trkpt lat="42.42027" lon="0.06489">
        <ele>809.3</ele>
        <time>2016-07-31T11:12:48Z</time>
      </trkpt>
      <trkpt lat="42.4203" lon="0.06492">
        <ele>809</ele>
        <time>2016-07-31T11:12:49Z</time>
      </trkpt>
      <trkpt lat="42.42033" lon="0.06494">
        <ele>808.7</ele>
        <time>2016-07-31T11:12:50Z</time>
      </trkpt>
      <trkpt lat="42.42035" lon="0.06495">
        <ele>808.5</ele>
        <time>2016-07-31T11:12:51Z</time>
      </trkpt>
      <trkpt lat="42.42038" lon="0.06498">
        <ele>808.3</ele>
        <time>2016-07-31T11:12:52Z</time>
      </trkpt>
      <trkpt lat="42.42041" lon="0.065">
        <ele>808</ele>
        <time>2016-07-31T11:12:53Z</time>
      </trkpt>
      <trkpt lat="42.42044" lon="0.06502">
        <ele>807.8</ele>
        <time>2016-07-31T11:12:54Z</time>
      </trkpt>
      <trkpt lat="42.42047" lon="0.06504">
        <ele>807.7</ele>
        <time>2016-07-31T11:12:55Z</time>
      </trkpt>
      <trkpt lat="42.42052" lon="0.06506">
        <ele>807.8</ele>
        <time>2016-07-31T11:12:57Z</time>
      </trkpt>
      <trkpt lat="42.42056" lon="0.06508">
        <ele>808</ele>
        <time>2016-07-31T11:12:58Z</time>
      </trkpt>
      <trkpt lat="42.42059" lon="0.06509">
        <ele>808.1</ele>
        <time>2016-07-31T11:12:59Z</time>
      </trkpt>
      <trkpt lat="42.42062" lon="0.0651">
        <ele>808.2</ele>
        <time>2016-07-31T11:13:00Z</time>
      </trkpt>
      <trkpt lat="42.42065" lon="0.06512">
        <ele>808</ele>
        <time>2016-07-31T11:13:01Z</time>
      </trkpt>
      <trkpt lat="42.42067" lon="0.06515">
        <ele>807.7</ele>
        <time>2016-07-31T11:13:02Z</time>
      </trkpt>
      <trkpt lat="42.4207" lon="0.06518">
        <ele>807.3</ele>
        <time>2016-07-31T11:13:03Z</time>
      </trkpt>
      <trkpt lat="42.42072" lon="0.06521">
        <ele>806.8</ele>
        <time>2016-07-31T11:13:04Z</time>
      </trkpt>
      <trkpt lat="42.42074" lon="0.06524">
        <ele>806.5</ele>
        <time>2016-07-31T11:13:05Z</time>
      </trkpt>
      <trkpt lat="42.42076" lon="0.06527">
        <ele>806.1</ele>
        <time>2016-07-31T11:13:07Z</time>
      </trkpt>
      <trkpt lat="42.42081" lon="0.06527">
        <ele>806.5</ele>
        <time>2016-07-31T11:13:09Z</time>
      </trkpt>
      <trkpt lat="42.42084" lon="0.06528">
        <ele>806.9</ele>
        <time>2016-07-31T11:13:10Z</time>
      </trkpt>
      <trkpt lat="42.42087" lon="0.06529">
        <ele>807</ele>
        <time>2016-07-31T11:13:11Z</time>
      </trkpt>
      <trkpt lat="42.4209" lon="0.06532">
        <ele>806.8</ele>
        <time>2016-07-31T11:13:12Z</time>
      </trkpt>
      <trkpt lat="42.42094" lon="0.06535">
        <ele>806.4</ele>
        <time>2016-07-31T11:13:13Z</time>
      </trkpt>
      <trkpt lat="42.42098" lon="0.0654">
        <ele>805.9</ele>
        <time>2016-07-31T11:13:14Z</time>
      </trkpt>
      <trkpt lat="42.42101" lon="0.06543">
        <ele>805.4</ele>
        <time>2016-07-31T11:13:15Z</time>
      </trkpt>
      <trkpt lat="42.42103" lon="0.06546">
        <ele>804.9</ele>
        <time>2016-07-31T11:13:16Z</time>
      </trkpt>
      <trkpt lat="42.42106" lon="0.06547">
        <ele>804.8</ele>
        <time>2016-07-31T11:13:17Z</time>
      </trkpt>
      <trkpt lat="42.4211" lon="0.06549">
        <ele>804.7</ele>
        <time>2016-07-31T11:13:18Z</time>
      </trkpt>
      <trkpt lat="42.42113" lon="0.06552">
        <ele>804.4</ele>
        <time>2016-07-31T11:13:19Z</time>
      </trkpt>
      <trkpt lat="42.42117" lon="0.06555">
        <ele>803.8</ele>
        <time>2016-07-31T11:13:20Z</time>
      </trkpt>
      <trkpt lat="42.42121" lon="0.06559">
        <ele>803.2</ele>
        <time>2016-07-31T11:13:21Z</time>
      </trkpt>
      <trkpt lat="42.42124" lon="0.06563">
        <ele>802.6</ele>
        <time>2016-07-31T11:13:22Z</time>
      </trkpt>
      <trkpt lat="42.42127" lon="0.06565">
        <ele>802.3</ele>
        <time>2016-07-31T11:13:23Z</time>
      </trkpt>
      <trkpt lat="42.42131" lon="0.06567">
        <ele>802.3</ele>
        <time>2016-07-31T11:13:24Z</time>
      </trkpt>
      <trkpt lat="42.42133" lon="0.06569">
        <ele>802</ele>
        <time>2016-07-31T11:13:25Z</time>
      </trkpt>
      <trkpt lat="42.42137" lon="0.06575">
        <ele>801</ele>
        <time>2016-07-31T11:13:27Z</time>
      </trkpt>
      <trkpt lat="42.42141" lon="0.06577">
        <ele>800.8</ele>
        <time>2016-07-31T11:13:28Z</time>
      </trkpt>
      <trkpt lat="42.42145" lon="0.06579">
        <ele>800.9</ele>
        <time>2016-07-31T11:13:29Z</time>
      </trkpt>
      <trkpt lat="42.42149" lon="0.0658">
        <ele>801.2</ele>
        <time>2016-07-31T11:13:30Z</time>
      </trkpt>
      <trkpt lat="42.42154" lon="0.06581">
        <ele>801.7</ele>
        <time>2016-07-31T11:13:31Z</time>
      </trkpt>
      <trkpt lat="42.42159" lon="0.06582">
        <ele>802.1</ele>
        <time>2016-07-31T11:13:32Z</time>
      </trkpt>
      <trkpt lat="42.42164" lon="0.06583">
        <ele>802.3</ele>
        <time>2016-07-31T11:13:33Z</time>
      </trkpt>
      <trkpt lat="42.42168" lon="0.06586">
        <ele>802.2</ele>
        <time>2016-07-31T11:13:34Z</time>
      </trkpt>
      <trkpt lat="42.42172" lon="0.06588">
        <ele>802.2</ele>
        <time>2016-07-31T11:13:35Z</time>
      </trkpt>
      <trkpt lat="42.42176" lon="0.06589">
        <ele>802.3</ele>
        <time>2016-07-31T11:13:36Z</time>
      </trkpt>
      <trkpt lat="42.4218" lon="0.0659">
        <ele>802.6</ele>
        <time>2016-07-31T11:13:37Z</time>
      </trkpt>
      <trkpt lat="42.42183" lon="0.06591">
        <ele>802.8</ele>
        <time>2016-07-31T11:13:38Z</time>
      </trkpt>
      <trkpt lat="42.42186" lon="0.06591">
        <ele>803.1</ele>
        <time>2016-07-31T11:13:39Z</time>
      </trkpt>
      <trkpt lat="42.42191" lon="0.06592">
        <ele>803.4</ele>
        <time>2016-07-31T11:13:40Z</time>
      </trkpt>
      <trkpt lat="42.42195" lon="0.06592">
        <ele>804.1</ele>
        <time>2016-07-31T11:13:41Z</time>
      </trkpt>
      <trkpt lat="42.422" lon="0.06592">
        <ele>805</ele>
        <time>2016-07-31T11:13:42Z</time>
      </trkpt>
      <trkpt lat="42.42204" lon="0.06591">
        <ele>805.8</ele>
        <time>2016-07-31T11:13:43Z</time>
      </trkpt>
      <trkpt lat="42.42209" lon="0.06591">
        <ele>806.6</ele>
        <time>2016-07-31T11:13:44Z</time>
      </trkpt>
      <trkpt lat="42.42214" lon="0.06591">
        <ele>806.7</ele>
        <time>2016-07-31T11:13:45Z</time>
      </trkpt>
      <trkpt lat="42.42219" lon="0.06592">
        <ele>806.8</ele>
        <time>2016-07-31T11:13:46Z</time>
      </trkpt>
      <trkpt lat="42.42224" lon="0.06592">
        <ele>806.7</ele>
        <time>2016-07-31T11:13:47Z</time>
      </trkpt>
      <trkpt lat="42.42229" lon="0.06593">
        <ele>806.8</ele>
        <time>2016-07-31T11:13:48Z</time>
      </trkpt>
      <trkpt lat="42.42233" lon="0.06593">
        <ele>807</ele>
        <time>2016-07-31T11:13:49Z</time>
      </trkpt>
      <trkpt lat="42.42236" lon="0.06593">
        <ele>807.2</ele>
        <time>2016-07-31T11:13:50Z</time>
      </trkpt>
      <trkpt lat="42.42241" lon="0.06594">
        <ele>807.2</ele>
        <time>2016-07-31T11:13:54Z</time>
      </trkpt>
      <trkpt lat="42.42244" lon="0.06594">
        <ele>807.2</ele>
        <time>2016-07-31T11:13:55Z</time>
      </trkpt>
      <trkpt lat="42.42247" lon="0.06595">
        <ele>807.2</ele>
        <time>2016-07-31T11:13:56Z</time>
      </trkpt>
      <trkpt lat="42.42251" lon="0.06595">
        <ele>807.2</ele>
        <time>2016-07-31T11:13:57Z</time>
      </trkpt>
      <trkpt lat="42.42254" lon="0.06595">
        <ele>807.4</ele>
        <time>2016-07-31T11:13:58Z</time>
      </trkpt>
      <trkpt lat="42.42258" lon="0.06596">
        <ele>807.5</ele>
        <time>2016-07-31T11:13:59Z</time>
      </trkpt>
      <trkpt lat="42.42262" lon="0.06596">
        <ele>807.5</ele>
        <time>2016-07-31T11:14:00Z</time>
      </trkpt>
      <trkpt lat="42.42267" lon="0.06597">
        <ele>807.6</ele>
        <time>2016-07-31T11:14:01Z</time>
      </trkpt>
      <trkpt lat="42.42273" lon="0.06597">
        <ele>807.7</ele>
        <time>2016-07-31T11:14:02Z</time>
      </trkpt>
      <trkpt lat="42.42278" lon="0.06599">
        <ele>807.5</ele>
        <time>2016-07-31T11:14:03Z</time>
      </trkpt>
      <trkpt lat="42.42284" lon="0.066">
        <ele>807.4</ele>
        <time>2016-07-31T11:14:04Z</time>
      </trkpt>
      <trkpt lat="42.4229" lon="0.06602">
        <ele>807</ele>
        <time>2016-07-31T11:14:05Z</time>
      </trkpt>
      <trkpt lat="42.42295" lon="0.06605">
        <ele>806.6</ele>
        <time>2016-07-31T11:14:06Z</time>
      </trkpt>
      <trkpt lat="42.423" lon="0.06608">
        <ele>806.3</ele>
        <time>2016-07-31T11:14:07Z</time>
      </trkpt>
      <trkpt lat="42.42304" lon="0.06611">
        <ele>805.9</ele>
        <time>2016-07-31T11:14:08Z</time>
      </trkpt>
      <trkpt lat="42.42307" lon="0.06613">
        <ele>805.5</ele>
        <time>2016-07-31T11:14:09Z</time>
      </trkpt>
      <trkpt lat="42.42311" lon="0.06617">
        <ele>805</ele>
        <time>2016-07-31T11:14:10Z</time>
      </trkpt>
      <trkpt lat="42.42316" lon="0.0662">
        <ele>804.4</ele>
        <time>2016-07-31T11:14:11Z</time>
      </trkpt>
      <trkpt lat="42.42319" lon="0.06625">
        <ele>803.5</ele>
        <time>2016-07-31T11:14:12Z</time>
      </trkpt>
      <trkpt lat="42.42323" lon="0.0663">
        <ele>802.6</ele>
        <time>2016-07-31T11:14:13Z</time>
      </trkpt>
      <trkpt lat="42.42326" lon="0.06635">
        <ele>801.6</ele>
        <time>2016-07-31T11:14:14Z</time>
      </trkpt>
      <trkpt lat="42.42328" lon="0.06641">
        <ele>800.6</ele>
        <time>2016-07-31T11:14:15Z</time>
      </trkpt>
      <trkpt lat="42.4233" lon="0.06646">
        <ele>799.5</ele>
        <time>2016-07-31T11:14:16Z</time>
      </trkpt>
      <trkpt lat="42.42331" lon="0.06651">
        <ele>798.4</ele>
        <time>2016-07-31T11:14:17Z</time>
      </trkpt>
      <trkpt lat="42.42333" lon="0.06655">
        <ele>797.6</ele>
        <time>2016-07-31T11:14:18Z</time>
      </trkpt>
      <trkpt lat="42.42336" lon="0.06658">
        <ele>797.2</ele>
        <time>2016-07-31T11:14:19Z</time>
      </trkpt>
      <trkpt lat="42.4234" lon="0.06661">
        <ele>797</ele>
        <time>2016-07-31T11:14:20Z</time>
      </trkpt>
      <trkpt lat="42.42345" lon="0.06663">
        <ele>797</ele>
        <time>2016-07-31T11:14:21Z</time>
      </trkpt>
      <trkpt lat="42.42349" lon="0.06664">
        <ele>797</ele>
        <time>2016-07-31T11:14:22Z</time>
      </trkpt>
      <trkpt lat="42.42354" lon="0.06666">
        <ele>797</ele>
        <time>2016-07-31T11:14:23Z</time>
      </trkpt>
      <trkpt lat="42.42359" lon="0.06668">
        <ele>796.9</ele>
        <time>2016-07-31T11:14:24Z</time>
      </trkpt>
      <trkpt lat="42.42365" lon="0.06671">
        <ele>796.9</ele>
        <time>2016-07-31T11:14:25Z</time>
      </trkpt>
      <trkpt lat="42.42371" lon="0.06673">
        <ele>796.9</ele>
        <time>2016-07-31T11:14:26Z</time>
      </trkpt>
      <trkpt lat="42.42378" lon="0.06676">
        <ele>797</ele>
        <time>2016-07-31T11:14:27Z</time>
      </trkpt>
      <trkpt lat="42.42384" lon="0.06678">
        <ele>797.3</ele>
        <time>2016-07-31T11:14:28Z</time>
      </trkpt>
      <trkpt lat="42.42389" lon="0.06679">
        <ele>797.6</ele>
        <time>2016-07-31T11:14:29Z</time>
      </trkpt>
      <trkpt lat="42.42393" lon="0.06681">
        <ele>797.7</ele>
        <time>2016-07-31T11:14:30Z</time>
      </trkpt>
      <trkpt lat="42.42398" lon="0.06683">
        <ele>797.7</ele>
        <time>2016-07-31T11:14:31Z</time>
      </trkpt>
      <trkpt lat="42.42401" lon="0.06686">
        <ele>797.4</ele>
        <time>2016-07-31T11:14:32Z</time>
      </trkpt>
      <trkpt lat="42.42405" lon="0.06689">
        <ele>797.1</ele>
        <time>2016-07-31T11:14:33Z</time>
      </trkpt>
      <trkpt lat="42.42408" lon="0.06693">
        <ele>796.6</ele>
        <time>2016-07-31T11:14:34Z</time>
      </trkpt>
      <trkpt lat="42.42411" lon="0.06696">
        <ele>796</ele>
        <time>2016-07-31T11:14:35Z</time>
      </trkpt>
      <trkpt lat="42.42414" lon="0.067">
        <ele>795.4</ele>
        <time>2016-07-31T11:14:36Z</time>
      </trkpt>
      <trkpt lat="42.42417" lon="0.06704">
        <ele>794.8</ele>
        <time>2016-07-31T11:14:37Z</time>
      </trkpt>
      <trkpt lat="42.42419" lon="0.06706">
        <ele>794.3</ele>
        <time>2016-07-31T11:14:38Z</time>
      </trkpt>
      <trkpt lat="42.42421" lon="0.06709">
        <ele>793.8</ele>
        <time>2016-07-31T11:14:39Z</time>
      </trkpt>
      <trkpt lat="42.42423" lon="0.06713">
        <ele>793.2</ele>
        <time>2016-07-31T11:14:40Z</time>
      </trkpt>
      <trkpt lat="42.42425" lon="0.06718">
        <ele>792.3</ele>
        <time>2016-07-31T11:14:41Z</time>
      </trkpt>
      <trkpt lat="42.42427" lon="0.06723">
        <ele>791.3</ele>
        <time>2016-07-31T11:14:42Z</time>
      </trkpt>
      <trkpt lat="42.4243" lon="0.06728">
        <ele>790.5</ele>
        <time>2016-07-31T11:14:43Z</time>
      </trkpt>
      <trkpt lat="42.42433" lon="0.06732">
        <ele>790</ele>
        <time>2016-07-31T11:14:44Z</time>
      </trkpt>
      <trkpt lat="42.42436" lon="0.06734">
        <ele>789.8</ele>
        <time>2016-07-31T11:14:45Z</time>
      </trkpt>
      <trkpt lat="42.42439" lon="0.06737">
        <ele>789.5</ele>
        <time>2016-07-31T11:14:47Z</time>
      </trkpt>
      <trkpt lat="42.42441" lon="0.06742">
        <ele>788.5</ele>
        <time>2016-07-31T11:14:49Z</time>
      </trkpt>
      <trkpt lat="42.42437" lon="0.06746">
        <ele>787.1</ele>
        <time>2016-07-31T11:14:51Z</time>
      </trkpt>
      <trkpt lat="42.42433" lon="0.06747">
        <ele>786.2</ele>
        <time>2016-07-31T11:14:52Z</time>
      </trkpt>
      <trkpt lat="42.4243" lon="0.06747">
        <ele>785.7</ele>
        <time>2016-07-31T11:14:54Z</time>
      </trkpt>
      <trkpt lat="42.42431" lon="0.06753">
        <ele>784.5</ele>
        <time>2016-07-31T11:14:58Z</time>
      </trkpt>
      <trkpt lat="42.42433" lon="0.06757">
        <ele>783.8</ele>
        <time>2016-07-31T11:14:59Z</time>
      </trkpt>
      <trkpt lat="42.42435" lon="0.06761">
        <ele>783</ele>
        <time>2016-07-31T11:15:00Z</time>
      </trkpt>
      <trkpt lat="42.42436" lon="0.06766">
        <ele>782.2</ele>
        <time>2016-07-31T11:15:01Z</time>
      </trkpt>
      <trkpt lat="42.42438" lon="0.06769">
        <ele>781.7</ele>
        <time>2016-07-31T11:15:02Z</time>
      </trkpt>
      <trkpt lat="42.42442" lon="0.06771">
        <ele>781.6</ele>
        <time>2016-07-31T11:15:04Z</time>
      </trkpt>
      <trkpt lat="42.42444" lon="0.06775">
        <ele>781</ele>
        <time>2016-07-31T11:15:06Z</time>
      </trkpt>
      <trkpt lat="42.42441" lon="0.06779">
        <ele>779.5</ele>
        <time>2016-07-31T11:15:08Z</time>
      </trkpt>
      <trkpt lat="42.42438" lon="0.06781">
        <ele>778.7</ele>
        <time>2016-07-31T11:15:09Z</time>
      </trkpt>
      <trkpt lat="42.42435" lon="0.06783">
        <ele>777.8</ele>
        <time>2016-07-31T11:15:10Z</time>
      </trkpt>
      <trkpt lat="42.42432" lon="0.06783">
        <ele>777.3</ele>
        <time>2016-07-31T11:15:11Z</time>
      </trkpt>
      <trkpt lat="42.42428" lon="0.06782">
        <ele>777</ele>
        <time>2016-07-31T11:15:12Z</time>
      </trkpt>
      <trkpt lat="42.42425" lon="0.06781">
        <ele>776.9</ele>
        <time>2016-07-31T11:15:13Z</time>
      </trkpt>
      <trkpt lat="42.42422" lon="0.06779">
        <ele>777</ele>
        <time>2016-07-31T11:15:14Z</time>
      </trkpt>
      <trkpt lat="42.42419" lon="0.06778">
        <ele>776.8</ele>
        <time>2016-07-31T11:15:15Z</time>
      </trkpt>
      <trkpt lat="42.42416" lon="0.06782">
        <ele>775.4</ele>
        <time>2016-07-31T11:15:17Z</time>
      </trkpt>
      <trkpt lat="42.42416" lon="0.06786">
        <ele>774.3</ele>
        <time>2016-07-31T11:15:18Z</time>
      </trkpt>
      <trkpt lat="42.42417" lon="0.0679">
        <ele>773.3</ele>
        <time>2016-07-31T11:15:19Z</time>
      </trkpt>
      <trkpt lat="42.42418" lon="0.06794">
        <ele>772.7</ele>
        <time>2016-07-31T11:15:20Z</time>
      </trkpt>
      <trkpt lat="42.42421" lon="0.06799">
        <ele>772.3</ele>
        <time>2016-07-31T11:15:22Z</time>
      </trkpt>
      <trkpt lat="42.42424" lon="0.06801">
        <ele>772.5</ele>
        <time>2016-07-31T11:15:23Z</time>
      </trkpt>
      <trkpt lat="42.42428" lon="0.06802">
        <ele>772.9</ele>
        <time>2016-07-31T11:15:24Z</time>
      </trkpt>
      <trkpt lat="42.42433" lon="0.06803">
        <ele>773.2</ele>
        <time>2016-07-31T11:15:25Z</time>
      </trkpt>
      <trkpt lat="42.42437" lon="0.06805">
        <ele>773.4</ele>
        <time>2016-07-31T11:15:26Z</time>
      </trkpt>
      <trkpt lat="42.4244" lon="0.06807">
        <ele>773.5</ele>
        <time>2016-07-31T11:15:27Z</time>
      </trkpt>
      <trkpt lat="42.42442" lon="0.06809">
        <ele>773.4</ele>
        <time>2016-07-31T11:15:28Z</time>
      </trkpt>
      <trkpt lat="42.42441" lon="0.06813">
        <ele>772.4</ele>
        <time>2016-07-31T11:15:32Z</time>
      </trkpt>
      <trkpt lat="42.42438" lon="0.06816">
        <ele>771.5</ele>
        <time>2016-07-31T11:15:34Z</time>
      </trkpt>
      <trkpt lat="42.42437" lon="0.06819">
        <ele>770.7</ele>
        <time>2016-07-31T11:15:36Z</time>
      </trkpt>
      <trkpt lat="42.4244" lon="0.06823">
        <ele>770.6</ele>
        <time>2016-07-31T11:15:40Z</time>
      </trkpt>
      <trkpt lat="42.42445" lon="0.06824">
        <ele>770.9</ele>
        <time>2016-07-31T11:15:42Z</time>
      </trkpt>
      <trkpt lat="42.42448" lon="0.06825">
        <ele>771.2</ele>
        <time>2016-07-31T11:15:43Z</time>
      </trkpt>
      <trkpt lat="42.42451" lon="0.06825">
        <ele>771.5</ele>
        <time>2016-07-31T11:15:44Z</time>
      </trkpt>
      <trkpt lat="42.42454" lon="0.06826">
        <ele>771.9</ele>
        <time>2016-07-31T11:15:45Z</time>
      </trkpt>
      <trkpt lat="42.42458" lon="0.06826">
        <ele>772.3</ele>
        <time>2016-07-31T11:15:46Z</time>
      </trkpt>
      <trkpt lat="42.42461" lon="0.06827">
        <ele>772</ele>
        <time>2016-07-31T11:15:47Z</time>
      </trkpt>
      <trkpt lat="42.42465" lon="0.06829">
        <ele>771.3</ele>
        <time>2016-07-31T11:15:48Z</time>
      </trkpt>
      <trkpt lat="42.42468" lon="0.06831">
        <ele>770.7</ele>
        <time>2016-07-31T11:15:49Z</time>
      </trkpt>
      <trkpt lat="42.42472" lon="0.06834">
        <ele>769.9</ele>
        <time>2016-07-31T11:15:51Z</time>
      </trkpt>
      <trkpt lat="42.42476" lon="0.06835">
        <ele>769.4</ele>
        <time>2016-07-31T11:15:53Z</time>
      </trkpt>
      <trkpt lat="42.42478" lon="0.06836">
        <ele>769</ele>
        <time>2016-07-31T11:15:55Z</time>
      </trkpt>
      <trkpt lat="42.4248" lon="0.0684">
        <ele>768</ele>
        <time>2016-07-31T11:15:57Z</time>
      </trkpt>
      <trkpt lat="42.42478" lon="0.06845">
        <ele>767.1</ele>
        <time>2016-07-31T11:15:59Z</time>
      </trkpt>
      <trkpt lat="42.42475" lon="0.06848">
        <ele>766.6</ele>
        <time>2016-07-31T11:16:00Z</time>
      </trkpt>
      <trkpt lat="42.42473" lon="0.06851">
        <ele>766.3</ele>
        <time>2016-07-31T11:16:01Z</time>
      </trkpt>
      <trkpt lat="42.42471" lon="0.06854">
        <ele>765.9</ele>
        <time>2016-07-31T11:16:02Z</time>
      </trkpt>
      <trkpt lat="42.42467" lon="0.06858">
        <ele>765.4</ele>
        <time>2016-07-31T11:16:03Z</time>
      </trkpt>
      <trkpt lat="42.42464" lon="0.06861">
        <ele>765</ele>
        <time>2016-07-31T11:16:04Z</time>
      </trkpt>
      <trkpt lat="42.42462" lon="0.06864">
        <ele>764.7</ele>
        <time>2016-07-31T11:16:05Z</time>
      </trkpt>
      <trkpt lat="42.42463" lon="0.06869">
        <ele>763.7</ele>
        <time>2016-07-31T11:16:08Z</time>
      </trkpt>
      <trkpt lat="42.42467" lon="0.06871">
        <ele>762.7</ele>
        <time>2016-07-31T11:16:10Z</time>
      </trkpt>
      <trkpt lat="42.4247" lon="0.06872">
        <ele>762.3</ele>
        <time>2016-07-31T11:16:11Z</time>
      </trkpt>
      <trkpt lat="42.42474" lon="0.06872">
        <ele>761.8</ele>
        <time>2016-07-31T11:16:13Z</time>
      </trkpt>
      <trkpt lat="42.42475" lon="0.06877">
        <ele>760.7</ele>
        <time>2016-07-31T11:16:16Z</time>
      </trkpt>
      <trkpt lat="42.42477" lon="0.06881">
        <ele>760.2</ele>
        <time>2016-07-31T11:16:18Z</time>
      </trkpt>
      <trkpt lat="42.42481" lon="0.06882">
        <ele>759.5</ele>
        <time>2016-07-31T11:16:20Z</time>
      </trkpt>
      <trkpt lat="42.42484" lon="0.06883">
        <ele>759.1</ele>
        <time>2016-07-31T11:16:21Z</time>
      </trkpt>
      <trkpt lat="42.42488" lon="0.06885">
        <ele>758.2</ele>
        <time>2016-07-31T11:16:23Z</time>
      </trkpt>
      <trkpt lat="42.42492" lon="0.06889">
        <ele>757.3</ele>
        <time>2016-07-31T11:16:25Z</time>
      </trkpt>
      <trkpt lat="42.42494" lon="0.0689">
        <ele>756.7</ele>
        <time>2016-07-31T11:16:26Z</time>
      </trkpt>
      <trkpt lat="42.42499" lon="0.06891">
        <ele>756</ele>
        <time>2016-07-31T11:16:28Z</time>
      </trkpt>
      <trkpt lat="42.42501" lon="0.06892">
        <ele>755.3</ele>
        <time>2016-07-31T11:16:31Z</time>
      </trkpt>
      <trkpt lat="42.42501" lon="0.06898">
        <ele>754.6</ele>
        <time>2016-07-31T11:16:33Z</time>
      </trkpt>
      <trkpt lat="42.42499" lon="0.06904">
        <ele>754</ele>
        <time>2016-07-31T11:16:35Z</time>
      </trkpt>
      <trkpt lat="42.42498" lon="0.06907">
        <ele>753.8</ele>
        <time>2016-07-31T11:16:36Z</time>
      </trkpt>
      <trkpt lat="42.42496" lon="0.06913">
        <ele>753.3</ele>
        <time>2016-07-31T11:16:38Z</time>
      </trkpt>
      <trkpt lat="42.42496" lon="0.06917">
        <ele>752.7</ele>
        <time>2016-07-31T11:16:47Z</time>
      </trkpt>
      <trkpt lat="42.425" lon="0.06915">
        <ele>752.4</ele>
        <time>2016-07-31T11:16:51Z</time>
      </trkpt>
      <trkpt lat="42.42503" lon="0.06912">
        <ele>752.1</ele>
        <time>2016-07-31T11:16:53Z</time>
      </trkpt>
      <trkpt lat="42.42506" lon="0.0691">
        <ele>751.8</ele>
        <time>2016-07-31T11:16:54Z</time>
      </trkpt>
      <trkpt lat="42.4251" lon="0.06907">
        <ele>751.5</ele>
        <time>2016-07-31T11:16:55Z</time>
      </trkpt>
      <trkpt lat="42.42513" lon="0.06905">
        <ele>751.4</ele>
        <time>2016-07-31T11:16:56Z</time>
      </trkpt>
      <trkpt lat="42.42516" lon="0.06903">
        <ele>751.2</ele>
        <time>2016-07-31T11:16:57Z</time>
      </trkpt>
      <trkpt lat="42.42519" lon="0.06901">
        <ele>751</ele>
        <time>2016-07-31T11:16:58Z</time>
      </trkpt>
      <trkpt lat="42.42523" lon="0.06899">
        <ele>750.7</ele>
        <time>2016-07-31T11:17:00Z</time>
      </trkpt>
      <trkpt lat="42.42526" lon="0.06897">
        <ele>750.5</ele>
        <time>2016-07-31T11:17:02Z</time>
      </trkpt>
      <trkpt lat="42.42529" lon="0.06895">
        <ele>750.6</ele>
        <time>2016-07-31T11:17:04Z</time>
      </trkpt>
      <trkpt lat="42.42533" lon="0.06891">
        <ele>750.7</ele>
        <time>2016-07-31T11:17:06Z</time>
      </trkpt>
      <trkpt lat="42.42537" lon="0.06887">
        <ele>750.9</ele>
        <time>2016-07-31T11:17:08Z</time>
      </trkpt>
      <trkpt lat="42.42541" lon="0.06883">
        <ele>751.3</ele>
        <time>2016-07-31T11:17:10Z</time>
      </trkpt>
      <trkpt lat="42.42544" lon="0.06881">
        <ele>750.7</ele>
        <time>2016-07-31T11:17:11Z</time>
      </trkpt>
      <trkpt lat="42.42547" lon="0.06879">
        <ele>749.6</ele>
        <time>2016-07-31T11:17:12Z</time>
      </trkpt>
      <trkpt lat="42.42551" lon="0.06876">
        <ele>748.4</ele>
        <time>2016-07-31T11:17:13Z</time>
      </trkpt>
      <trkpt lat="42.42555" lon="0.06873">
        <ele>747.4</ele>
        <time>2016-07-31T11:17:14Z</time>
      </trkpt>
      <trkpt lat="42.4256" lon="0.0687">
        <ele>746.1</ele>
        <time>2016-07-31T11:17:15Z</time>
      </trkpt>
      <trkpt lat="42.42564" lon="0.06867">
        <ele>745.1</ele>
        <time>2016-07-31T11:17:16Z</time>
      </trkpt>
      <trkpt lat="42.42568" lon="0.06865">
        <ele>744.2</ele>
        <time>2016-07-31T11:17:17Z</time>
      </trkpt>
      <trkpt lat="42.42571" lon="0.06863">
        <ele>743.4</ele>
        <time>2016-07-31T11:17:18Z</time>
      </trkpt>
      <trkpt lat="42.42574" lon="0.06861">
        <ele>742.5</ele>
        <time>2016-07-31T11:17:19Z</time>
      </trkpt>
      <trkpt lat="42.42578" lon="0.06858">
        <ele>741.8</ele>
        <time>2016-07-31T11:17:20Z</time>
      </trkpt>
      <trkpt lat="42.42582" lon="0.06855">
        <ele>741.1</ele>
        <time>2016-07-31T11:17:21Z</time>
      </trkpt>
      <trkpt lat="42.42586" lon="0.06851">
        <ele>740.6</ele>
        <time>2016-07-31T11:17:22Z</time>
      </trkpt>
      <trkpt lat="42.42589" lon="0.06847">
        <ele>740.3</ele>
        <time>2016-07-31T11:17:23Z</time>
      </trkpt>
      <trkpt lat="42.4259" lon="0.06844">
        <ele>741</ele>
        <time>2016-07-31T11:17:30Z</time>
      </trkpt>
      <trkpt lat="42.42593" lon="0.06843">
        <ele>740</ele>
        <time>2016-07-31T11:17:33Z</time>
      </trkpt>
      <trkpt lat="42.42596" lon="0.0684">
        <ele>739.4</ele>
        <time>2016-07-31T11:17:36Z</time>
      </trkpt>
      <trkpt lat="42.42599" lon="0.06837">
        <ele>739.1</ele>
        <time>2016-07-31T11:17:40Z</time>
      </trkpt>
      <trkpt lat="42.426" lon="0.06834">
        <ele>739.6</ele>
        <time>2016-07-31T11:17:44Z</time>
      </trkpt>
      <trkpt lat="42.42603" lon="0.06831">
        <ele>739.6</ele>
        <time>2016-07-31T11:17:47Z</time>
      </trkpt>
      <trkpt lat="42.42605" lon="0.06831">
        <ele>738.2</ele>
        <time>2016-07-31T11:17:51Z</time>
      </trkpt>
      <trkpt lat="42.42609" lon="0.06832">
        <ele>736.1</ele>
        <time>2016-07-31T11:17:54Z</time>
      </trkpt>
      <trkpt lat="42.42614" lon="0.06832">
        <ele>734.2</ele>
        <time>2016-07-31T11:17:56Z</time>
      </trkpt>
      <trkpt lat="42.42618" lon="0.0683">
        <ele>733</ele>
        <time>2016-07-31T11:17:58Z</time>
      </trkpt>
      <trkpt lat="42.42623" lon="0.06829">
        <ele>731.6</ele>
        <time>2016-07-31T11:18:00Z</time>
      </trkpt>
      <trkpt lat="42.42626" lon="0.06827">
        <ele>730.5</ele>
        <time>2016-07-31T11:18:02Z</time>
      </trkpt>
      <trkpt lat="42.42629" lon="0.06825">
        <ele>730</ele>
        <time>2016-07-31T11:18:04Z</time>
      </trkpt>
      <trkpt lat="42.42632" lon="0.06822">
        <ele>729.9</ele>
        <time>2016-07-31T11:18:06Z</time>
      </trkpt>
      <trkpt lat="42.42635" lon="0.06818">
        <ele>729.6</ele>
        <time>2016-07-31T11:18:08Z</time>
      </trkpt>
      <trkpt lat="42.42638" lon="0.06816">
        <ele>728.7</ele>
        <time>2016-07-31T11:18:09Z</time>
      </trkpt>
      <trkpt lat="42.42642" lon="0.06814">
        <ele>727.6</ele>
        <time>2016-07-31T11:18:10Z</time>
      </trkpt>
      <trkpt lat="42.42646" lon="0.06811">
        <ele>726.7</ele>
        <time>2016-07-31T11:18:11Z</time>
      </trkpt>
      <trkpt lat="42.4265" lon="0.06806">
        <ele>726.3</ele>
        <time>2016-07-31T11:18:12Z</time>
      </trkpt>
      <trkpt lat="42.42653" lon="0.06802">
        <ele>726.1</ele>
        <time>2016-07-31T11:18:13Z</time>
      </trkpt>
      <trkpt lat="42.42655" lon="0.06799">
        <ele>726.1</ele>
        <time>2016-07-31T11:18:14Z</time>
      </trkpt>
      <trkpt lat="42.42657" lon="0.06796">
        <ele>725.9</ele>
        <time>2016-07-31T11:18:15Z</time>
      </trkpt>
      <trkpt lat="42.4266" lon="0.06792">
        <ele>725.6</ele>
        <time>2016-07-31T11:18:16Z</time>
      </trkpt>
      <trkpt lat="42.42663" lon="0.06789">
        <ele>725</ele>
        <time>2016-07-31T11:18:17Z</time>
      </trkpt>
      <trkpt lat="42.42665" lon="0.06784">
        <ele>724.8</ele>
        <time>2016-07-31T11:18:18Z</time>
      </trkpt>
      <trkpt lat="42.42667" lon="0.0678">
        <ele>725</ele>
        <time>2016-07-31T11:18:19Z</time>
      </trkpt>
      <trkpt lat="42.42667" lon="0.06776">
        <ele>725.8</ele>
        <time>2016-07-31T11:18:20Z</time>
      </trkpt>
      <trkpt lat="42.42667" lon="0.06772">
        <ele>726.6</ele>
        <time>2016-07-31T11:18:22Z</time>
      </trkpt>
      <trkpt lat="42.42672" lon="0.06769">
        <ele>725.1</ele>
        <time>2016-07-31T11:18:24Z</time>
      </trkpt>
      <trkpt lat="42.42677" lon="0.0677">
        <ele>722.4</ele>
        <time>2016-07-31T11:18:26Z</time>
      </trkpt>
      <trkpt lat="42.4268" lon="0.06771">
        <ele>720.6</ele>
        <time>2016-07-31T11:18:27Z</time>
      </trkpt>
      <trkpt lat="42.42682" lon="0.06773">
        <ele>719</ele>
        <time>2016-07-31T11:18:28Z</time>
      </trkpt>
      <trkpt lat="42.42684" lon="0.06776">
        <ele>717.2</ele>
        <time>2016-07-31T11:18:29Z</time>
      </trkpt>
      <trkpt lat="42.42688" lon="0.06777">
        <ele>715.1</ele>
        <time>2016-07-31T11:18:30Z</time>
      </trkpt>
      <trkpt lat="42.42692" lon="0.06779">
        <ele>712.7</ele>
        <time>2016-07-31T11:18:31Z</time>
      </trkpt>
      <trkpt lat="42.42696" lon="0.06779">
        <ele>710.7</ele>
        <time>2016-07-31T11:18:32Z</time>
      </trkpt>
      <trkpt lat="42.427" lon="0.06778">
        <ele>709.1</ele>
        <time>2016-07-31T11:18:33Z</time>
      </trkpt>
      <trkpt lat="42.42703" lon="0.06776">
        <ele>707.6</ele>
        <time>2016-07-31T11:18:34Z</time>
      </trkpt>
      <trkpt lat="42.42706" lon="0.06775">
        <ele>706.3</ele>
        <time>2016-07-31T11:18:35Z</time>
      </trkpt>
      <trkpt lat="42.42711" lon="0.06774">
        <ele>704.8</ele>
        <time>2016-07-31T11:18:37Z</time>
      </trkpt>
      <trkpt lat="42.42717" lon="0.06773">
        <ele>703.3</ele>
        <time>2016-07-31T11:18:39Z</time>
      </trkpt>
      <trkpt lat="42.4272" lon="0.06772">
        <ele>702.7</ele>
        <time>2016-07-31T11:18:40Z</time>
      </trkpt>
      <trkpt lat="42.42723" lon="0.06771">
        <ele>702.1</ele>
        <time>2016-07-31T11:18:41Z</time>
      </trkpt>
      <trkpt lat="42.42726" lon="0.0677">
        <ele>701.3</ele>
        <time>2016-07-31T11:18:42Z</time>
      </trkpt>
      <trkpt lat="42.4273" lon="0.06769">
        <ele>700.3</ele>
        <time>2016-07-31T11:18:44Z</time>
      </trkpt>
      <trkpt lat="42.42734" lon="0.06765">
        <ele>699.8</ele>
        <time>2016-07-31T11:18:46Z</time>
      </trkpt>
      <trkpt lat="42.42738" lon="0.06766">
        <ele>698.6</ele>
        <time>2016-07-31T11:18:49Z</time>
      </trkpt>
      <trkpt lat="42.42738" lon="0.06773">
        <ele>697.1</ele>
        <time>2016-07-31T11:18:51Z</time>
      </trkpt>
      <trkpt lat="42.42739" lon="0.06779">
        <ele>695.6</ele>
        <time>2016-07-31T11:18:53Z</time>
      </trkpt>
      <trkpt lat="42.4274" lon="0.06783">
        <ele>694.5</ele>
        <time>2016-07-31T11:18:55Z</time>
      </trkpt>
      <trkpt lat="42.42743" lon="0.06785">
        <ele>693.4</ele>
        <time>2016-07-31T11:18:58Z</time>
      </trkpt>
      <trkpt lat="42.42745" lon="0.06788">
        <ele>692.3</ele>
        <time>2016-07-31T11:19:00Z</time>
      </trkpt>
      <trkpt lat="42.42745" lon="0.06792">
        <ele>691.5</ele>
        <time>2016-07-31T11:19:03Z</time>
      </trkpt>
      <trkpt lat="42.42749" lon="0.06793">
        <ele>690</ele>
        <time>2016-07-31T11:19:06Z</time>
      </trkpt>
      <trkpt lat="42.42753" lon="0.06792">
        <ele>689.2</ele>
        <time>2016-07-31T11:19:07Z</time>
      </trkpt>
      <trkpt lat="42.42756" lon="0.0679">
        <ele>688.6</ele>
        <time>2016-07-31T11:19:08Z</time>
      </trkpt>
      <trkpt lat="42.42756" lon="0.06795">
        <ele>687.3</ele>
        <time>2016-07-31T11:19:14Z</time>
      </trkpt>
      <trkpt lat="42.42755" lon="0.06798">
        <ele>686.9</ele>
        <time>2016-07-31T11:19:15Z</time>
      </trkpt>
      <trkpt lat="42.42754" lon="0.06805">
        <ele>685.7</ele>
        <time>2016-07-31T11:19:17Z</time>
      </trkpt>
      <trkpt lat="42.42755" lon="0.06809">
        <ele>684.2</ele>
        <time>2016-07-31T11:19:19Z</time>
      </trkpt>
      <trkpt lat="42.42758" lon="0.06812">
        <ele>682.7</ele>
        <time>2016-07-31T11:19:21Z</time>
      </trkpt>
      <trkpt lat="42.42759" lon="0.06818">
        <ele>680.6</ele>
        <time>2016-07-31T11:19:23Z</time>
      </trkpt>
      <trkpt lat="42.4276" lon="0.06822">
        <ele>679.4</ele>
        <time>2016-07-31T11:19:24Z</time>
      </trkpt>
      <trkpt lat="42.4276" lon="0.06826">
        <ele>678.2</ele>
        <time>2016-07-31T11:19:25Z</time>
      </trkpt>
      <trkpt lat="42.42762" lon="0.06832">
        <ele>676.1</ele>
        <time>2016-07-31T11:19:27Z</time>
      </trkpt>
      <trkpt lat="42.42765" lon="0.06834">
        <ele>674.8</ele>
        <time>2016-07-31T11:19:28Z</time>
      </trkpt>
      <trkpt lat="42.42769" lon="0.06836">
        <ele>673.1</ele>
        <time>2016-07-31T11:19:30Z</time>
      </trkpt>
      <trkpt lat="42.42771" lon="0.06842">
        <ele>671.3</ele>
        <time>2016-07-31T11:19:32Z</time>
      </trkpt>
      <trkpt lat="42.42771" lon="0.06846">
        <ele>670</ele>
        <time>2016-07-31T11:19:34Z</time>
      </trkpt>
      <trkpt lat="42.42775" lon="0.06849">
        <ele>668.3</ele>
        <time>2016-07-31T11:19:36Z</time>
      </trkpt>
      <trkpt lat="42.42779" lon="0.06853">
        <ele>666.1</ele>
        <time>2016-07-31T11:19:38Z</time>
      </trkpt>
      <trkpt lat="42.42781" lon="0.06856">
        <ele>664.8</ele>
        <time>2016-07-31T11:19:39Z</time>
      </trkpt>
      <trkpt lat="42.42785" lon="0.06857">
        <ele>663.2</ele>
        <time>2016-07-31T11:19:41Z</time>
      </trkpt>
      <trkpt lat="42.4279" lon="0.06856">
        <ele>662.3</ele>
        <time>2016-07-31T11:19:43Z</time>
      </trkpt>
      <trkpt lat="42.42793" lon="0.06854">
        <ele>662.2</ele>
        <time>2016-07-31T11:19:44Z</time>
      </trkpt>
      <trkpt lat="42.42795" lon="0.06852">
        <ele>662.3</ele>
        <time>2016-07-31T11:19:50Z</time>
      </trkpt>
      <trkpt lat="42.42799" lon="0.06854">
        <ele>661.2</ele>
        <time>2016-07-31T11:19:53Z</time>
      </trkpt>
      <trkpt lat="42.42802" lon="0.06857">
        <ele>659.9</ele>
        <time>2016-07-31T11:19:57Z</time>
      </trkpt>
      <trkpt lat="42.42807" lon="0.06858">
        <ele>658.9</ele>
        <time>2016-07-31T11:19:59Z</time>
      </trkpt>
      <trkpt lat="42.42811" lon="0.06857">
        <ele>658.7</ele>
        <time>2016-07-31T11:20:00Z</time>
      </trkpt>
      <trkpt lat="42.42814" lon="0.06854">
        <ele>658.7</ele>
        <time>2016-07-31T11:20:01Z</time>
      </trkpt>
      <trkpt lat="42.42817" lon="0.06851">
        <ele>658.9</ele>
        <time>2016-07-31T11:20:02Z</time>
      </trkpt>
      <trkpt lat="42.42819" lon="0.06849">
        <ele>659.1</ele>
        <time>2016-07-31T11:20:03Z</time>
      </trkpt>
      <trkpt lat="42.42822" lon="0.06846">
        <ele>659.2</ele>
        <time>2016-07-31T11:20:04Z</time>
      </trkpt>
      <trkpt lat="42.42825" lon="0.06843">
        <ele>659.2</ele>
        <time>2016-07-31T11:20:05Z</time>
      </trkpt>
      <trkpt lat="42.42828" lon="0.06841">
        <ele>659.2</ele>
        <time>2016-07-31T11:20:06Z</time>
      </trkpt>
      <trkpt lat="42.42832" lon="0.06838">
        <ele>659</ele>
        <time>2016-07-31T11:20:07Z</time>
      </trkpt>
      <trkpt lat="42.42835" lon="0.06836">
        <ele>658.8</ele>
        <time>2016-07-31T11:20:08Z</time>
      </trkpt>
      <trkpt lat="42.42838" lon="0.06834">
        <ele>658.7</ele>
        <time>2016-07-31T11:20:09Z</time>
      </trkpt>
      <trkpt lat="42.42841" lon="0.06831">
        <ele>658.7</ele>
        <time>2016-07-31T11:20:10Z</time>
      </trkpt>
      <trkpt lat="42.42843" lon="0.06828">
        <ele>659.1</ele>
        <time>2016-07-31T11:20:11Z</time>
      </trkpt>
      <trkpt lat="42.42843" lon="0.06823">
        <ele>659.8</ele>
        <time>2016-07-31T11:20:13Z</time>
      </trkpt>
      <trkpt lat="42.4284" lon="0.06821">
        <ele>660.8</ele>
        <time>2016-07-31T11:20:18Z</time>
      </trkpt>
      <trkpt lat="42.42841" lon="0.06825">
        <ele>660</ele>
        <time>2016-07-31T11:20:32Z</time>
      </trkpt>
      <trkpt lat="42.42837" lon="0.06829">
        <ele>659.8</ele>
        <time>2016-07-31T11:20:34Z</time>
      </trkpt>
      <trkpt lat="42.42835" lon="0.06831">
        <ele>659.9</ele>
        <time>2016-07-31T11:20:35Z</time>
      </trkpt>
      <trkpt lat="42.42832" lon="0.06834">
        <ele>659.8</ele>
        <time>2016-07-31T11:20:36Z</time>
      </trkpt>
      <trkpt lat="42.42829" lon="0.06837">
        <ele>659.7</ele>
        <time>2016-07-31T11:20:37Z</time>
      </trkpt>
      <trkpt lat="42.42826" lon="0.06841">
        <ele>659.5</ele>
        <time>2016-07-31T11:20:38Z</time>
      </trkpt>
      <trkpt lat="42.42823" lon="0.06845">
        <ele>659.2</ele>
        <time>2016-07-31T11:20:39Z</time>
      </trkpt>
      <trkpt lat="42.4282" lon="0.06849">
        <ele>658.9</ele>
        <time>2016-07-31T11:20:40Z</time>
      </trkpt>
      <trkpt lat="42.42818" lon="0.06852">
        <ele>658.7</ele>
        <time>2016-07-31T11:20:41Z</time>
      </trkpt>
      <trkpt lat="42.42815" lon="0.06854">
        <ele>658.6</ele>
        <time>2016-07-31T11:20:42Z</time>
      </trkpt>
      <trkpt lat="42.42811" lon="0.06855">
        <ele>658.9</ele>
        <time>2016-07-31T11:20:43Z</time>
      </trkpt>
      <trkpt lat="42.42808" lon="0.06855">
        <ele>659.4</ele>
        <time>2016-07-31T11:20:44Z</time>
      </trkpt>
      <trkpt lat="42.42805" lon="0.06855">
        <ele>660</ele>
        <time>2016-07-31T11:20:45Z</time>
      </trkpt>
      <trkpt lat="42.42802" lon="0.06855">
        <ele>660.5</ele>
        <time>2016-07-31T11:20:46Z</time>
      </trkpt>
      <trkpt lat="42.42799" lon="0.06855">
        <ele>660.9</ele>
        <time>2016-07-31T11:20:49Z</time>
      </trkpt>
      <trkpt lat="42.42796" lon="0.06856">
        <ele>661</ele>
        <time>2016-07-31T11:20:56Z</time>
      </trkpt>
      <trkpt lat="42.42799" lon="0.06856">
        <ele>660.7</ele>
        <time>2016-07-31T11:21:18Z</time>
      </trkpt>
      <trkpt lat="42.42804" lon="0.06856">
        <ele>659.8</ele>
        <time>2016-07-31T11:21:20Z</time>
      </trkpt>
      <trkpt lat="42.42807" lon="0.06856">
        <ele>659.3</ele>
        <time>2016-07-31T11:21:21Z</time>
      </trkpt>
      <trkpt lat="42.42811" lon="0.06855">
        <ele>658.9</ele>
        <time>2016-07-31T11:21:22Z</time>
      </trkpt>
      <trkpt lat="42.42814" lon="0.06853">
        <ele>658.9</ele>
        <time>2016-07-31T11:21:23Z</time>
      </trkpt>
      <trkpt lat="42.42817" lon="0.06851">
        <ele>659.1</ele>
        <time>2016-07-31T11:21:24Z</time>
      </trkpt>
      <trkpt lat="42.42819" lon="0.06847">
        <ele>659.5</ele>
        <time>2016-07-31T11:21:25Z</time>
      </trkpt>
      <trkpt lat="42.42821" lon="0.06844">
        <ele>659.9</ele>
        <time>2016-07-31T11:21:26Z</time>
      </trkpt>
      <trkpt lat="42.42823" lon="0.0684">
        <ele>660.2</ele>
        <time>2016-07-31T11:21:27Z</time>
      </trkpt>
      <trkpt lat="42.42826" lon="0.06837">
        <ele>660.4</ele>
        <time>2016-07-31T11:21:28Z</time>
      </trkpt>
      <trkpt lat="42.4283" lon="0.06834">
        <ele>660.3</ele>
        <time>2016-07-31T11:21:29Z</time>
      </trkpt>
      <trkpt lat="42.42833" lon="0.06831">
        <ele>660.3</ele>
        <time>2016-07-31T11:21:30Z</time>
      </trkpt>
      <trkpt lat="42.42836" lon="0.06828">
        <ele>660.3</ele>
        <time>2016-07-31T11:21:31Z</time>
      </trkpt>
      <trkpt lat="42.42839" lon="0.06824">
        <ele>660.5</ele>
        <time>2016-07-31T11:21:32Z</time>
      </trkpt>
      <trkpt lat="42.42841" lon="0.06819">
        <ele>660.9</ele>
        <time>2016-07-31T11:21:33Z</time>
      </trkpt>
      <trkpt lat="42.42843" lon="0.06816">
        <ele>661.3</ele>
        <time>2016-07-31T11:21:34Z</time>
      </trkpt>
      <trkpt lat="42.42844" lon="0.06813">
        <ele>661.6</ele>
        <time>2016-07-31T11:21:35Z</time>
      </trkpt>
      <trkpt lat="42.42846" lon="0.06809">
        <ele>661.8</ele>
        <time>2016-07-31T11:21:36Z</time>
      </trkpt>
      <trkpt lat="42.42848" lon="0.06806">
        <ele>661.8</ele>
        <time>2016-07-31T11:21:37Z</time>
      </trkpt>
      <trkpt lat="42.42851" lon="0.06803">
        <ele>661.8</ele>
        <time>2016-07-31T11:21:38Z</time>
      </trkpt>
      <trkpt lat="42.42853" lon="0.06801">
        <ele>661.9</ele>
        <time>2016-07-31T11:21:39Z</time>
      </trkpt>
      <trkpt lat="42.42856" lon="0.06794">
        <ele>662</ele>
        <time>2016-07-31T11:21:41Z</time>
      </trkpt>
      <trkpt lat="42.42859" lon="0.06791">
        <ele>661.9</ele>
        <time>2016-07-31T11:21:42Z</time>
      </trkpt>
      <trkpt lat="42.42862" lon="0.06788">
        <ele>661.4</ele>
        <time>2016-07-31T11:21:43Z</time>
      </trkpt>
      <trkpt lat="42.42864" lon="0.06785">
        <ele>661.1</ele>
        <time>2016-07-31T11:21:44Z</time>
      </trkpt>
      <trkpt lat="42.42866" lon="0.0678">
        <ele>660.8</ele>
        <time>2016-07-31T11:21:45Z</time>
      </trkpt>
      <trkpt lat="42.42868" lon="0.06775">
        <ele>660.7</ele>
        <time>2016-07-31T11:21:46Z</time>
      </trkpt>
      <trkpt lat="42.42869" lon="0.0677">
        <ele>660.7</ele>
        <time>2016-07-31T11:21:47Z</time>
      </trkpt>
      <trkpt lat="42.42869" lon="0.06765">
        <ele>660.8</ele>
        <time>2016-07-31T11:21:48Z</time>
      </trkpt>
      <trkpt lat="42.4287" lon="0.06761">
        <ele>660.9</ele>
        <time>2016-07-31T11:21:49Z</time>
      </trkpt>
      <trkpt lat="42.42871" lon="0.06757">
        <ele>660.9</ele>
        <time>2016-07-31T11:21:50Z</time>
      </trkpt>
      <trkpt lat="42.42872" lon="0.06752">
        <ele>660.7</ele>
        <time>2016-07-31T11:21:51Z</time>
      </trkpt>
      <trkpt lat="42.42875" lon="0.06748">
        <ele>660.3</ele>
        <time>2016-07-31T11:21:52Z</time>
      </trkpt>
      <trkpt lat="42.42877" lon="0.06744">
        <ele>660</ele>
        <time>2016-07-31T11:21:53Z</time>
      </trkpt>
      <trkpt lat="42.42878" lon="0.0674">
        <ele>659.9</ele>
        <time>2016-07-31T11:21:54Z</time>
      </trkpt>
      <trkpt lat="42.4288" lon="0.06736">
        <ele>659.9</ele>
        <time>2016-07-31T11:21:55Z</time>
      </trkpt>
      <trkpt lat="42.42881" lon="0.06731">
        <ele>659.9</ele>
        <time>2016-07-31T11:21:56Z</time>
      </trkpt>
      <trkpt lat="42.42882" lon="0.06726">
        <ele>659.9</ele>
        <time>2016-07-31T11:21:57Z</time>
      </trkpt>
      <trkpt lat="42.42883" lon="0.06722">
        <ele>660</ele>
        <time>2016-07-31T11:21:58Z</time>
      </trkpt>
      <trkpt lat="42.42883" lon="0.06717">
        <ele>660</ele>
        <time>2016-07-31T11:21:59Z</time>
      </trkpt>
      <trkpt lat="42.42883" lon="0.06714">
        <ele>660.2</ele>
        <time>2016-07-31T11:22:00Z</time>
      </trkpt>
      <trkpt lat="42.42883" lon="0.0671">
        <ele>660.3</ele>
        <time>2016-07-31T11:22:01Z</time>
      </trkpt>
      <trkpt lat="42.42882" lon="0.06704">
        <ele>659.9</ele>
        <time>2016-07-31T11:22:03Z</time>
      </trkpt>
      <trkpt lat="42.42881" lon="0.06698">
        <ele>659.3</ele>
        <time>2016-07-31T11:22:05Z</time>
      </trkpt>
      <trkpt lat="42.42879" lon="0.06693">
        <ele>658.7</ele>
        <time>2016-07-31T11:22:07Z</time>
      </trkpt>
      <trkpt lat="42.42877" lon="0.06686">
        <ele>658</ele>
        <time>2016-07-31T11:22:09Z</time>
      </trkpt>
      <trkpt lat="42.42876" lon="0.06683">
        <ele>657.7</ele>
        <time>2016-07-31T11:22:10Z</time>
      </trkpt>
      <trkpt lat="42.42873" lon="0.06678">
        <ele>657.9</ele>
        <time>2016-07-31T11:22:12Z</time>
      </trkpt>
      <trkpt lat="42.4287" lon="0.06673">
        <ele>658.6</ele>
        <time>2016-07-31T11:22:14Z</time>
      </trkpt>
      <trkpt lat="42.42867" lon="0.06667">
        <ele>658.7</ele>
        <time>2016-07-31T11:22:16Z</time>
      </trkpt>
      <trkpt lat="42.42866" lon="0.06663">
        <ele>658.8</ele>
        <time>2016-07-31T11:22:17Z</time>
      </trkpt>
      <trkpt lat="42.42864" lon="0.06659">
        <ele>659.1</ele>
        <time>2016-07-31T11:22:18Z</time>
      </trkpt>
      <trkpt lat="42.42862" lon="0.06654">
        <ele>659.6</ele>
        <time>2016-07-31T11:22:19Z</time>
      </trkpt>
      <trkpt lat="42.4286" lon="0.06651">
        <ele>660.1</ele>
        <time>2016-07-31T11:22:20Z</time>
      </trkpt>
      <trkpt lat="42.42858" lon="0.06647">
        <ele>661</ele>
        <time>2016-07-31T11:22:22Z</time>
      </trkpt>
      <trkpt lat="42.42856" lon="0.06644">
        <ele>661.9</ele>
        <time>2016-07-31T11:22:24Z</time>
      </trkpt>
      <trkpt lat="42.42854" lon="0.06641">
        <ele>662.3</ele>
        <time>2016-07-31T11:22:29Z</time>
      </trkpt>
      <trkpt lat="42.42854" lon="0.06637">
        <ele>661.7</ele>
        <time>2016-07-31T11:22:44Z</time>
      </trkpt>
      <trkpt lat="42.42856" lon="0.06634">
        <ele>660.3</ele>
        <time>2016-07-31T11:22:55Z</time>
      </trkpt>
      <trkpt lat="42.42859" lon="0.06632">
        <ele>658.4</ele>
        <time>2016-07-31T11:23:05Z</time>
      </trkpt>
      <trkpt lat="42.4286" lon="0.06628">
        <ele>657.2</ele>
        <time>2016-07-31T11:23:12Z</time>
      </trkpt>
      <trkpt lat="42.42862" lon="0.06624">
        <ele>655.9</ele>
        <time>2016-07-31T11:23:23Z</time>
      </trkpt>
      <trkpt lat="42.42862" lon="0.0662">
        <ele>655.3</ele>
        <time>2016-07-31T11:23:27Z</time>
      </trkpt>
      <trkpt lat="42.42864" lon="0.0662">
        <ele>653.6</ele>
        <time>2016-07-31T11:23:33Z</time>
      </trkpt>
      <trkpt lat="42.42867" lon="0.06623">
        <ele>652.6</ele>
        <time>2016-07-31T11:23:36Z</time>
      </trkpt>
      <trkpt lat="42.42869" lon="0.06626">
        <ele>651.9</ele>
        <time>2016-07-31T11:23:38Z</time>
      </trkpt>
      <trkpt lat="42.42871" lon="0.06631">
        <ele>651.4</ele>
        <time>2016-07-31T11:23:41Z</time>
      </trkpt>
      <trkpt lat="42.42874" lon="0.06628">
        <ele>649.3</ele>
        <time>2016-07-31T11:23:45Z</time>
      </trkpt>
      <trkpt lat="42.42874" lon="0.06624">
        <ele>648.2</ele>
        <time>2016-07-31T11:23:47Z</time>
      </trkpt>
      <trkpt lat="42.42872" lon="0.06617">
        <ele>648.4</ele>
        <time>2016-07-31T11:23:49Z</time>
      </trkpt>
      <trkpt lat="42.42871" lon="0.06613">
        <ele>648.4</ele>
        <time>2016-07-31T11:23:50Z</time>
      </trkpt>
      <trkpt lat="42.42869" lon="0.06608">
        <ele>649.1</ele>
        <time>2016-07-31T11:23:52Z</time>
      </trkpt>
      <trkpt lat="42.42866" lon="0.06604">
        <ele>650.5</ele>
        <time>2016-07-31T11:23:54Z</time>
      </trkpt>
      <trkpt lat="42.42863" lon="0.06602">
        <ele>651.5</ele>
        <time>2016-07-31T11:23:55Z</time>
      </trkpt>
      <trkpt lat="42.42861" lon="0.066">
        <ele>652.5</ele>
        <time>2016-07-31T11:23:56Z</time>
      </trkpt>
      <trkpt lat="42.42858" lon="0.06596">
        <ele>653.7</ele>
        <time>2016-07-31T11:23:58Z</time>
      </trkpt>
      <trkpt lat="42.42855" lon="0.0659">
        <ele>654.7</ele>
        <time>2016-07-31T11:24:00Z</time>
      </trkpt>
      <trkpt lat="42.42851" lon="0.06586">
        <ele>655.8</ele>
        <time>2016-07-31T11:24:02Z</time>
      </trkpt>
      <trkpt lat="42.42849" lon="0.06583">
        <ele>656.7</ele>
        <time>2016-07-31T11:24:08Z</time>
      </trkpt>
      <trkpt lat="42.42847" lon="0.06579">
        <ele>656.9</ele>
        <time>2016-07-31T11:24:13Z</time>
      </trkpt>
      <trkpt lat="42.42846" lon="0.06576">
        <ele>657.2</ele>
        <time>2016-07-31T11:24:17Z</time>
      </trkpt>
      <trkpt lat="42.42844" lon="0.06573">
        <ele>657.7</ele>
        <time>2016-07-31T11:24:21Z</time>
      </trkpt>
      <trkpt lat="42.42841" lon="0.06571">
        <ele>658.8</ele>
        <time>2016-07-31T11:24:25Z</time>
      </trkpt>
      <trkpt lat="42.42839" lon="0.06568">
        <ele>659.5</ele>
        <time>2016-07-31T11:24:29Z</time>
      </trkpt>
      <trkpt lat="42.42836" lon="0.06565">
        <ele>660.7</ele>
        <time>2016-07-31T11:24:33Z</time>
      </trkpt>
      <trkpt lat="42.42835" lon="0.06562">
        <ele>661</ele>
        <time>2016-07-31T11:24:41Z</time>
      </trkpt>
      <trkpt lat="42.42833" lon="0.06559">
        <ele>661</ele>
        <time>2016-07-31T11:24:44Z</time>
      </trkpt>
      <trkpt lat="42.42831" lon="0.06554">
        <ele>661.6</ele>
        <time>2016-07-31T11:24:47Z</time>
      </trkpt>
      <trkpt lat="42.42829" lon="0.06552">
        <ele>662.2</ele>
        <time>2016-07-31T11:24:50Z</time>
      </trkpt>
      <trkpt lat="42.42827" lon="0.06549">
        <ele>663</ele>
        <time>2016-07-31T11:24:56Z</time>
      </trkpt>
      <trkpt lat="42.42824" lon="0.06547">
        <ele>663.9</ele>
        <time>2016-07-31T11:24:59Z</time>
      </trkpt>
      <trkpt lat="42.42822" lon="0.06546">
        <ele>664.9</ele>
        <time>2016-07-31T11:25:02Z</time>
      </trkpt>
      <trkpt lat="42.42819" lon="0.06543">
        <ele>665.8</ele>
        <time>2016-07-31T11:25:05Z</time>
      </trkpt>
      <trkpt lat="42.42817" lon="0.0654">
        <ele>666.4</ele>
        <time>2016-07-31T11:25:10Z</time>
      </trkpt>
      <trkpt lat="42.42815" lon="0.06538">
        <ele>667.1</ele>
        <time>2016-07-31T11:25:15Z</time>
      </trkpt>
      <trkpt lat="42.42812" lon="0.06535">
        <ele>667.8</ele>
        <time>2016-07-31T11:25:19Z</time>
      </trkpt>
      <trkpt lat="42.42809" lon="0.06532">
        <ele>668.7</ele>
        <time>2016-07-31T11:25:23Z</time>
      </trkpt>
      <trkpt lat="42.42807" lon="0.06528">
        <ele>668.6</ele>
        <time>2016-07-31T11:25:27Z</time>
      </trkpt>
      <trkpt lat="42.42807" lon="0.06524">
        <ele>668</ele>
        <time>2016-07-31T11:25:30Z</time>
      </trkpt>
      <trkpt lat="42.42805" lon="0.06521">
        <ele>667.8</ele>
        <time>2016-07-31T11:25:34Z</time>
      </trkpt>
      <trkpt lat="42.42803" lon="0.06518">
        <ele>668.3</ele>
        <time>2016-07-31T11:25:39Z</time>
      </trkpt>
      <trkpt lat="42.42801" lon="0.06516">
        <ele>668.5</ele>
        <time>2016-07-31T11:25:44Z</time>
      </trkpt>
      <trkpt lat="42.428" lon="0.06512">
        <ele>667.9</ele>
        <time>2016-07-31T11:25:48Z</time>
      </trkpt>
      <trkpt lat="42.42799" lon="0.06508">
        <ele>667.3</ele>
        <time>2016-07-31T11:25:51Z</time>
      </trkpt>
      <trkpt lat="42.42798" lon="0.06504">
        <ele>666.4</ele>
        <time>2016-07-31T11:25:54Z</time>
      </trkpt>
      <trkpt lat="42.42798" lon="0.06499">
        <ele>665.5</ele>
        <time>2016-07-31T11:25:57Z</time>
      </trkpt>
      <trkpt lat="42.42798" lon="0.06494">
        <ele>664.1</ele>
        <time>2016-07-31T11:25:59Z</time>
      </trkpt>
      <trkpt lat="42.42798" lon="0.06487">
        <ele>662.3</ele>
        <time>2016-07-31T11:26:01Z</time>
      </trkpt>
      <trkpt lat="42.42799" lon="0.06481">
        <ele>660.2</ele>
        <time>2016-07-31T11:26:03Z</time>
      </trkpt>
      <trkpt lat="42.42799" lon="0.06477">
        <ele>659.1</ele>
        <time>2016-07-31T11:26:04Z</time>
      </trkpt>
      <trkpt lat="42.42799" lon="0.06472">
        <ele>658</ele>
        <time>2016-07-31T11:26:05Z</time>
      </trkpt>
      <trkpt lat="42.42799" lon="0.06468">
        <ele>656.9</ele>
        <time>2016-07-31T11:26:06Z</time>
      </trkpt>
      <trkpt lat="42.42798" lon="0.06464">
        <ele>655.9</ele>
        <time>2016-07-31T11:26:07Z</time>
      </trkpt>
      <trkpt lat="42.42798" lon="0.0646">
        <ele>654.9</ele>
        <time>2016-07-31T11:26:08Z</time>
      </trkpt>
      <trkpt lat="42.42798" lon="0.06456">
        <ele>654.1</ele>
        <time>2016-07-31T11:26:09Z</time>
      </trkpt>
      <trkpt lat="42.42798" lon="0.06452">
        <ele>653.5</ele>
        <time>2016-07-31T11:26:10Z</time>
      </trkpt>
      <trkpt lat="42.42798" lon="0.06445">
        <ele>652.4</ele>
        <time>2016-07-31T11:26:12Z</time>
      </trkpt>
      <trkpt lat="42.42798" lon="0.06441">
        <ele>651.8</ele>
        <time>2016-07-31T11:26:13Z</time>
      </trkpt>
      <trkpt lat="42.42798" lon="0.06437">
        <ele>651.2</ele>
        <time>2016-07-31T11:26:14Z</time>
      </trkpt>
      <trkpt lat="42.42798" lon="0.06433">
        <ele>650.5</ele>
        <time>2016-07-31T11:26:15Z</time>
      </trkpt>
      <trkpt lat="42.42798" lon="0.06429">
        <ele>649.8</ele>
        <time>2016-07-31T11:26:16Z</time>
      </trkpt>
      <trkpt lat="42.42799" lon="0.06425">
        <ele>649</ele>
        <time>2016-07-31T11:26:17Z</time>
      </trkpt>
      <trkpt lat="42.428" lon="0.06421">
        <ele>648.2</ele>
        <time>2016-07-31T11:26:18Z</time>
      </trkpt>
      <trkpt lat="42.428" lon="0.06417">
        <ele>647.5</ele>
        <time>2016-07-31T11:26:19Z</time>
      </trkpt>
      <trkpt lat="42.42801" lon="0.06413">
        <ele>646.8</ele>
        <time>2016-07-31T11:26:20Z</time>
      </trkpt>
      <trkpt lat="42.42802" lon="0.06409">
        <ele>646.1</ele>
        <time>2016-07-31T11:26:21Z</time>
      </trkpt>
      <trkpt lat="42.42802" lon="0.06405">
        <ele>645.4</ele>
        <time>2016-07-31T11:26:22Z</time>
      </trkpt>
      <trkpt lat="42.42803" lon="0.06402">
        <ele>644.8</ele>
        <time>2016-07-31T11:26:23Z</time>
      </trkpt>
      <trkpt lat="42.42803" lon="0.06398">
        <ele>644.2</ele>
        <time>2016-07-31T11:26:24Z</time>
      </trkpt>
      <trkpt lat="42.42804" lon="0.06394">
        <ele>643.6</ele>
        <time>2016-07-31T11:26:25Z</time>
      </trkpt>
      <trkpt lat="42.42804" lon="0.0639">
        <ele>643</ele>
        <time>2016-07-31T11:26:26Z</time>
      </trkpt>
      <trkpt lat="42.42803" lon="0.06386">
        <ele>642.4</ele>
        <time>2016-07-31T11:26:27Z</time>
      </trkpt>
      <trkpt lat="42.42803" lon="0.06382">
        <ele>641.8</ele>
        <time>2016-07-31T11:26:28Z</time>
      </trkpt>
      <trkpt lat="42.42802" lon="0.06378">
        <ele>641.2</ele>
        <time>2016-07-31T11:26:29Z</time>
      </trkpt>
      <trkpt lat="42.42802" lon="0.06374">
        <ele>640.7</ele>
        <time>2016-07-31T11:26:30Z</time>
      </trkpt>
      <trkpt lat="42.42802" lon="0.06369">
        <ele>640.6</ele>
        <time>2016-07-31T11:26:31Z</time>
      </trkpt>
      <trkpt lat="42.42803" lon="0.06365">
        <ele>640.4</ele>
        <time>2016-07-31T11:26:32Z</time>
      </trkpt>
      <trkpt lat="42.42803" lon="0.06361">
        <ele>640.3</ele>
        <time>2016-07-31T11:26:33Z</time>
      </trkpt>
      <trkpt lat="42.42803" lon="0.06356">
        <ele>640.2</ele>
        <time>2016-07-31T11:26:34Z</time>
      </trkpt>
      <trkpt lat="42.42804" lon="0.06352">
        <ele>640</ele>
        <time>2016-07-31T11:26:35Z</time>
      </trkpt>
      <trkpt lat="42.42804" lon="0.06348">
        <ele>639.9</ele>
        <time>2016-07-31T11:26:36Z</time>
      </trkpt>
      <trkpt lat="42.42804" lon="0.06343">
        <ele>639.8</ele>
        <time>2016-07-31T11:26:37Z</time>
      </trkpt>
      <trkpt lat="42.42803" lon="0.0634">
        <ele>639.7</ele>
        <time>2016-07-31T11:26:38Z</time>
      </trkpt>
      <trkpt lat="42.42802" lon="0.06336">
        <ele>639.6</ele>
        <time>2016-07-31T11:26:39Z</time>
      </trkpt>
      <trkpt lat="42.42801" lon="0.06333">
        <ele>639.5</ele>
        <time>2016-07-31T11:26:40Z</time>
      </trkpt>
      <trkpt lat="42.428" lon="0.06329">
        <ele>639.4</ele>
        <time>2016-07-31T11:26:41Z</time>
      </trkpt>
      <trkpt lat="42.42797" lon="0.06324">
        <ele>639.2</ele>
        <time>2016-07-31T11:26:43Z</time>
      </trkpt>
      <trkpt lat="42.42794" lon="0.0632">
        <ele>639</ele>
        <time>2016-07-31T11:26:45Z</time>
      </trkpt>
      <trkpt lat="42.42793" lon="0.06314">
        <ele>638.8</ele>
        <time>2016-07-31T11:26:47Z</time>
      </trkpt>
      <trkpt lat="42.42793" lon="0.0631">
        <ele>638.7</ele>
        <time>2016-07-31T11:26:48Z</time>
      </trkpt>
      <trkpt lat="42.42794" lon="0.06306">
        <ele>638.6</ele>
        <time>2016-07-31T11:26:49Z</time>
      </trkpt>
      <trkpt lat="42.42794" lon="0.06302">
        <ele>638.4</ele>
        <time>2016-07-31T11:26:50Z</time>
      </trkpt>
      <trkpt lat="42.42795" lon="0.06299">
        <ele>638.3</ele>
        <time>2016-07-31T11:26:51Z</time>
      </trkpt>
      <trkpt lat="42.42796" lon="0.06295">
        <ele>638.2</ele>
        <time>2016-07-31T11:26:52Z</time>
      </trkpt>
      <trkpt lat="42.42798" lon="0.0629">
        <ele>638.2</ele>
        <time>2016-07-31T11:26:54Z</time>
      </trkpt>
      <trkpt lat="42.428" lon="0.06284">
        <ele>638.4</ele>
        <time>2016-07-31T11:26:56Z</time>
      </trkpt>
      <trkpt lat="42.42802" lon="0.06277">
        <ele>638.6</ele>
        <time>2016-07-31T11:26:58Z</time>
      </trkpt>
      <trkpt lat="42.42802" lon="0.06273">
        <ele>638.7</ele>
        <time>2016-07-31T11:26:59Z</time>
      </trkpt>
      <trkpt lat="42.42803" lon="0.0627">
        <ele>638.8</ele>
        <time>2016-07-31T11:27:00Z</time>
      </trkpt>
      <trkpt lat="42.42804" lon="0.06266">
        <ele>639</ele>
        <time>2016-07-31T11:27:01Z</time>
      </trkpt>
      <trkpt lat="42.42805" lon="0.06262">
        <ele>639.1</ele>
        <time>2016-07-31T11:27:02Z</time>
      </trkpt>
      <trkpt lat="42.42805" lon="0.06259">
        <ele>639.2</ele>
        <time>2016-07-31T11:27:03Z</time>
      </trkpt>
      <trkpt lat="42.42805" lon="0.06255">
        <ele>639.3</ele>
        <time>2016-07-31T11:27:04Z</time>
      </trkpt>
      <trkpt lat="42.42805" lon="0.06251">
        <ele>639.4</ele>
        <time>2016-07-31T11:27:05Z</time>
      </trkpt>
      <trkpt lat="42.42804" lon="0.06247">
        <ele>639.5</ele>
        <time>2016-07-31T11:27:06Z</time>
      </trkpt>
      <trkpt lat="42.42803" lon="0.06243">
        <ele>639.5</ele>
        <time>2016-07-31T11:27:07Z</time>
      </trkpt>
      <trkpt lat="42.42802" lon="0.06239">
        <ele>639.5</ele>
        <time>2016-07-31T11:27:08Z</time>
      </trkpt>
      <trkpt lat="42.42802" lon="0.06234">
        <ele>639.6</ele>
        <time>2016-07-31T11:27:09Z</time>
      </trkpt>
      <trkpt lat="42.42801" lon="0.0623">
        <ele>639.7</ele>
        <time>2016-07-31T11:27:10Z</time>
      </trkpt>
      <trkpt lat="42.42801" lon="0.06225">
        <ele>639.8</ele>
        <time>2016-07-31T11:27:11Z</time>
      </trkpt>
      <trkpt lat="42.42802" lon="0.0622">
        <ele>640</ele>
        <time>2016-07-31T11:27:12Z</time>
      </trkpt>
      <trkpt lat="42.42803" lon="0.06215">
        <ele>640.2</ele>
        <time>2016-07-31T11:27:13Z</time>
      </trkpt>
      <trkpt lat="42.42804" lon="0.0621">
        <ele>640.4</ele>
        <time>2016-07-31T11:27:14Z</time>
      </trkpt>
      <trkpt lat="42.42804" lon="0.06206">
        <ele>640.9</ele>
        <time>2016-07-31T11:27:15Z</time>
      </trkpt>
      <trkpt lat="42.42805" lon="0.06201">
        <ele>641.6</ele>
        <time>2016-07-31T11:27:16Z</time>
      </trkpt>
      <trkpt lat="42.42806" lon="0.06196">
        <ele>642.5</ele>
        <time>2016-07-31T11:27:17Z</time>
      </trkpt>
      <trkpt lat="42.42808" lon="0.06193">
        <ele>643.2</ele>
        <time>2016-07-31T11:27:18Z</time>
      </trkpt>
      <trkpt lat="42.4281" lon="0.0619">
        <ele>643.8</ele>
        <time>2016-07-31T11:27:19Z</time>
      </trkpt>
      <trkpt lat="42.42813" lon="0.06189">
        <ele>644.3</ele>
        <time>2016-07-31T11:27:20Z</time>
      </trkpt>
      <trkpt lat="42.42817" lon="0.06189">
        <ele>644.7</ele>
        <time>2016-07-31T11:27:21Z</time>
      </trkpt>
      <trkpt lat="42.42821" lon="0.06192">
        <ele>644.9</ele>
        <time>2016-07-31T11:27:22Z</time>
      </trkpt>
      <trkpt lat="42.42826" lon="0.06195">
        <ele>645</ele>
        <time>2016-07-31T11:27:23Z</time>
      </trkpt>
      <trkpt lat="42.4283" lon="0.06198">
        <ele>645</ele>
        <time>2016-07-31T11:27:24Z</time>
      </trkpt>
      <trkpt lat="42.42835" lon="0.06202">
        <ele>645.1</ele>
        <time>2016-07-31T11:27:25Z</time>
      </trkpt>
      <trkpt lat="42.42839" lon="0.06205">
        <ele>645.1</ele>
        <time>2016-07-31T11:27:26Z</time>
      </trkpt>
      <trkpt lat="42.42843" lon="0.06209">
        <ele>645.2</ele>
        <time>2016-07-31T11:27:27Z</time>
      </trkpt>
      <trkpt lat="42.42848" lon="0.06212">
        <ele>645.4</ele>
        <time>2016-07-31T11:27:28Z</time>
      </trkpt>
      <trkpt lat="42.42852" lon="0.06215">
        <ele>645.6</ele>
        <time>2016-07-31T11:27:29Z</time>
      </trkpt>
      <trkpt lat="42.42855" lon="0.06218">
        <ele>645.8</ele>
        <time>2016-07-31T11:27:30Z</time>
      </trkpt>
      <trkpt lat="42.42859" lon="0.06221">
        <ele>645.9</ele>
        <time>2016-07-31T11:27:31Z</time>
      </trkpt>
      <trkpt lat="42.42862" lon="0.06224">
        <ele>646</ele>
        <time>2016-07-31T11:27:32Z</time>
      </trkpt>
      <trkpt lat="42.42866" lon="0.06227">
        <ele>646.1</ele>
        <time>2016-07-31T11:27:33Z</time>
      </trkpt>
      <trkpt lat="42.42869" lon="0.0623">
        <ele>646.1</ele>
        <time>2016-07-31T11:27:34Z</time>
      </trkpt>
      <trkpt lat="42.42871" lon="0.06233">
        <ele>646</ele>
        <time>2016-07-31T11:27:35Z</time>
      </trkpt>
      <trkpt lat="42.42873" lon="0.06236">
        <ele>645.8</ele>
        <time>2016-07-31T11:27:36Z</time>
      </trkpt>
      <trkpt lat="42.42874" lon="0.0624">
        <ele>645.6</ele>
        <time>2016-07-31T11:27:37Z</time>
      </trkpt>
      <trkpt lat="42.42877" lon="0.06246">
        <ele>645.1</ele>
        <time>2016-07-31T11:27:39Z</time>
      </trkpt>
      <trkpt lat="42.42878" lon="0.06252">
        <ele>644.6</ele>
        <time>2016-07-31T11:27:41Z</time>
      </trkpt>
      <trkpt lat="42.4288" lon="0.06257">
        <ele>644.1</ele>
        <time>2016-07-31T11:27:43Z</time>
      </trkpt>
      <trkpt lat="42.42881" lon="0.06263">
        <ele>643.6</ele>
        <time>2016-07-31T11:27:45Z</time>
      </trkpt>
      <trkpt lat="42.42881" lon="0.06268">
        <ele>643.1</ele>
        <time>2016-07-31T11:27:47Z</time>
      </trkpt>
      <trkpt lat="42.42882" lon="0.06274">
        <ele>642.6</ele>
        <time>2016-07-31T11:27:49Z</time>
      </trkpt>
      <trkpt lat="42.42882" lon="0.06279">
        <ele>642</ele>
        <time>2016-07-31T11:27:51Z</time>
      </trkpt>
      <trkpt lat="42.42881" lon="0.06284">
        <ele>641.5</ele>
        <time>2016-07-31T11:27:53Z</time>
      </trkpt>
      <trkpt lat="42.42881" lon="0.0629">
        <ele>640.9</ele>
        <time>2016-07-31T11:27:55Z</time>
      </trkpt>
      <trkpt lat="42.42881" lon="0.06295">
        <ele>640.7</ele>
        <time>2016-07-31T11:27:57Z</time>
      </trkpt>
      <trkpt lat="42.4288" lon="0.063">
        <ele>640.6</ele>
        <time>2016-07-31T11:27:59Z</time>
      </trkpt>
      <trkpt lat="42.4288" lon="0.06305">
        <ele>640.5</ele>
        <time>2016-07-31T11:28:01Z</time>
      </trkpt>
      <trkpt lat="42.42881" lon="0.0631">
        <ele>640.6</ele>
        <time>2016-07-31T11:28:03Z</time>
      </trkpt>
      <trkpt lat="42.4288" lon="0.06315">
        <ele>640.4</ele>
        <time>2016-07-31T11:28:05Z</time>
      </trkpt>
      <trkpt lat="42.42879" lon="0.0632">
        <ele>640.4</ele>
        <time>2016-07-31T11:28:07Z</time>
      </trkpt>
      <trkpt lat="42.4288" lon="0.06324">
        <ele>640.4</ele>
        <time>2016-07-31T11:28:09Z</time>
      </trkpt>
      <trkpt lat="42.4288" lon="0.06329">
        <ele>640.4</ele>
        <time>2016-07-31T11:28:11Z</time>
      </trkpt>
      <trkpt lat="42.4288" lon="0.06334">
        <ele>640.4</ele>
        <time>2016-07-31T11:28:13Z</time>
      </trkpt>
      <trkpt lat="42.4288" lon="0.06339">
        <ele>640.3</ele>
        <time>2016-07-31T11:28:15Z</time>
      </trkpt>
      <trkpt lat="42.4288" lon="0.06344">
        <ele>640.4</ele>
        <time>2016-07-31T11:28:17Z</time>
      </trkpt>
      <trkpt lat="42.4288" lon="0.0635">
        <ele>640.5</ele>
        <time>2016-07-31T11:28:19Z</time>
      </trkpt>
      <trkpt lat="42.42881" lon="0.06355">
        <ele>640.7</ele>
        <time>2016-07-31T11:28:21Z</time>
      </trkpt>
      <trkpt lat="42.42883" lon="0.06359">
        <ele>641.1</ele>
        <time>2016-07-31T11:28:23Z</time>
      </trkpt>
      <trkpt lat="42.42885" lon="0.06364">
        <ele>641.5</ele>
        <time>2016-07-31T11:28:25Z</time>
      </trkpt>
      <trkpt lat="42.42886" lon="0.06369">
        <ele>641.9</ele>
        <time>2016-07-31T11:28:27Z</time>
      </trkpt>
      <trkpt lat="42.42888" lon="0.06374">
        <ele>642.3</ele>
        <time>2016-07-31T11:28:29Z</time>
      </trkpt>
      <trkpt lat="42.42889" lon="0.06379">
        <ele>642.6</ele>
        <time>2016-07-31T11:28:31Z</time>
      </trkpt>
      <trkpt lat="42.42891" lon="0.06383">
        <ele>643</ele>
        <time>2016-07-31T11:28:33Z</time>
      </trkpt>
      <trkpt lat="42.42893" lon="0.06386">
        <ele>643.6</ele>
        <time>2016-07-31T11:28:35Z</time>
      </trkpt>
      <trkpt lat="42.42896" lon="0.0639">
        <ele>644.3</ele>
        <time>2016-07-31T11:28:37Z</time>
      </trkpt>
      <trkpt lat="42.42899" lon="0.06393">
        <ele>645.1</ele>
        <time>2016-07-31T11:28:39Z</time>
      </trkpt>
      <trkpt lat="42.42902" lon="0.06397">
        <ele>645.8</ele>
        <time>2016-07-31T11:28:41Z</time>
      </trkpt>
      <trkpt lat="42.42905" lon="0.06401">
        <ele>646.5</ele>
        <time>2016-07-31T11:28:43Z</time>
      </trkpt>
      <trkpt lat="42.42907" lon="0.06404">
        <ele>647.1</ele>
        <time>2016-07-31T11:28:45Z</time>
      </trkpt>
      <trkpt lat="42.42909" lon="0.06407">
        <ele>647.6</ele>
        <time>2016-07-31T11:28:47Z</time>
      </trkpt>
      <trkpt lat="42.42911" lon="0.0641">
        <ele>648.1</ele>
        <time>2016-07-31T11:28:49Z</time>
      </trkpt>
      <trkpt lat="42.42913" lon="0.06414">
        <ele>648.6</ele>
        <time>2016-07-31T11:28:51Z</time>
      </trkpt>
      <trkpt lat="42.42915" lon="0.06419">
        <ele>649.1</ele>
        <time>2016-07-31T11:28:53Z</time>
      </trkpt>
      <trkpt lat="42.42917" lon="0.06423">
        <ele>649.4</ele>
        <time>2016-07-31T11:28:55Z</time>
      </trkpt>
      <trkpt lat="42.42918" lon="0.06427">
        <ele>649.9</ele>
        <time>2016-07-31T11:28:57Z</time>
      </trkpt>
      <trkpt lat="42.4292" lon="0.06431">
        <ele>650.3</ele>
        <time>2016-07-31T11:28:59Z</time>
      </trkpt>
      <trkpt lat="42.42922" lon="0.06435">
        <ele>650.8</ele>
        <time>2016-07-31T11:29:01Z</time>
      </trkpt>
      <trkpt lat="42.42924" lon="0.06439">
        <ele>651.4</ele>
        <time>2016-07-31T11:29:03Z</time>
      </trkpt>
      <trkpt lat="42.42926" lon="0.06443">
        <ele>651.9</ele>
        <time>2016-07-31T11:29:05Z</time>
      </trkpt>
      <trkpt lat="42.42929" lon="0.06446">
        <ele>652.6</ele>
        <time>2016-07-31T11:29:07Z</time>
      </trkpt>
      <trkpt lat="42.42932" lon="0.06449">
        <ele>653.4</ele>
        <time>2016-07-31T11:29:09Z</time>
      </trkpt>
      <trkpt lat="42.42935" lon="0.06451">
        <ele>654.3</ele>
        <time>2016-07-31T11:29:11Z</time>
      </trkpt>
      <trkpt lat="42.42938" lon="0.06454">
        <ele>655.1</ele>
        <time>2016-07-31T11:29:13Z</time>
      </trkpt>
      <trkpt lat="42.42941" lon="0.06456">
        <ele>655.9</ele>
        <time>2016-07-31T11:29:15Z</time>
      </trkpt>
      <trkpt lat="42.42944" lon="0.06458">
        <ele>656.8</ele>
        <time>2016-07-31T11:29:17Z</time>
      </trkpt>
      <trkpt lat="42.42947" lon="0.06461">
        <ele>657.5</ele>
        <time>2016-07-31T11:29:19Z</time>
      </trkpt>
      <trkpt lat="42.4295" lon="0.06462">
        <ele>658.2</ele>
        <time>2016-07-31T11:29:21Z</time>
      </trkpt>
      <trkpt lat="42.42953" lon="0.06464">
        <ele>658.9</ele>
        <time>2016-07-31T11:29:23Z</time>
      </trkpt>
      <trkpt lat="42.42956" lon="0.06464">
        <ele>659.6</ele>
        <time>2016-07-31T11:29:25Z</time>
      </trkpt>
      <trkpt lat="42.42958" lon="0.06466">
        <ele>660.2</ele>
        <time>2016-07-31T11:29:27Z</time>
      </trkpt>
      <trkpt lat="42.42961" lon="0.06468">
        <ele>660.7</ele>
        <time>2016-07-31T11:29:29Z</time>
      </trkpt>
      <trkpt lat="42.42964" lon="0.0647">
        <ele>661.2</ele>
        <time>2016-07-31T11:29:31Z</time>
      </trkpt>
      <trkpt lat="42.42967" lon="0.06472">
        <ele>661.9</ele>
        <time>2016-07-31T11:29:33Z</time>
      </trkpt>
      <trkpt lat="42.4297" lon="0.06474">
        <ele>662.5</ele>
        <time>2016-07-31T11:29:35Z</time>
      </trkpt>
      <trkpt lat="42.42972" lon="0.06477">
        <ele>662.9</ele>
        <time>2016-07-31T11:29:37Z</time>
      </trkpt>
      <trkpt lat="42.42972" lon="0.06482">
        <ele>662.6</ele>
        <time>2016-07-31T11:29:39Z</time>
      </trkpt>
      <trkpt lat="42.42973" lon="0.06487">
        <ele>662.4</ele>
        <time>2016-07-31T11:29:41Z</time>
      </trkpt>
      <trkpt lat="42.42973" lon="0.06492">
        <ele>662.2</ele>
        <time>2016-07-31T11:29:43Z</time>
      </trkpt>
      <trkpt lat="42.42974" lon="0.06497">
        <ele>662</ele>
        <time>2016-07-31T11:29:45Z</time>
      </trkpt>
      <trkpt lat="42.42974" lon="0.06501">
        <ele>661.7</ele>
        <time>2016-07-31T11:29:47Z</time>
      </trkpt>
      <trkpt lat="42.42974" lon="0.06506">
        <ele>661.5</ele>
        <time>2016-07-31T11:29:49Z</time>
      </trkpt>
      <trkpt lat="42.42975" lon="0.06511">
        <ele>661.5</ele>
        <time>2016-07-31T11:29:51Z</time>
      </trkpt>
      <trkpt lat="42.42975" lon="0.06516">
        <ele>661.2</ele>
        <time>2016-07-31T11:29:53Z</time>
      </trkpt>
      <trkpt lat="42.42976" lon="0.06521">
        <ele>661.1</ele>
        <time>2016-07-31T11:29:55Z</time>
      </trkpt>
      <trkpt lat="42.42977" lon="0.06526">
        <ele>661.3</ele>
        <time>2016-07-31T11:29:57Z</time>
      </trkpt>
      <trkpt lat="42.42978" lon="0.06531">
        <ele>661.3</ele>
        <time>2016-07-31T11:29:59Z</time>
      </trkpt>
      <trkpt lat="42.42978" lon="0.06536">
        <ele>661.2</ele>
        <time>2016-07-31T11:30:01Z</time>
      </trkpt>
      <trkpt lat="42.42979" lon="0.06542">
        <ele>661.3</ele>
        <time>2016-07-31T11:30:03Z</time>
      </trkpt>
      <trkpt lat="42.4298" lon="0.06548">
        <ele>661.4</ele>
        <time>2016-07-31T11:30:05Z</time>
      </trkpt>
      <trkpt lat="42.4298" lon="0.06555">
        <ele>661.2</ele>
        <time>2016-07-31T11:30:07Z</time>
      </trkpt>
      <trkpt lat="42.42981" lon="0.06559">
        <ele>661</ele>
        <time>2016-07-31T11:30:08Z</time>
      </trkpt>
      <trkpt lat="42.42981" lon="0.06563">
        <ele>661</ele>
        <time>2016-07-31T11:30:09Z</time>
      </trkpt>
      <trkpt lat="42.42981" lon="0.06567">
        <ele>660.9</ele>
        <time>2016-07-31T11:30:10Z</time>
      </trkpt>
      <trkpt lat="42.42981" lon="0.0657">
        <ele>660.8</ele>
        <time>2016-07-31T11:30:11Z</time>
      </trkpt>
      <trkpt lat="42.42981" lon="0.06574">
        <ele>660.6</ele>
        <time>2016-07-31T11:30:12Z</time>
      </trkpt>
      <trkpt lat="42.42981" lon="0.06578">
        <ele>660.4</ele>
        <time>2016-07-31T11:30:13Z</time>
      </trkpt>
      <trkpt lat="42.42981" lon="0.06585">
        <ele>659.9</ele>
        <time>2016-07-31T11:30:15Z</time>
      </trkpt>
      <trkpt lat="42.42981" lon="0.06589">
        <ele>659.7</ele>
        <time>2016-07-31T11:30:16Z</time>
      </trkpt>
      <trkpt lat="42.4298" lon="0.06596">
        <ele>659.3</ele>
        <time>2016-07-31T11:30:18Z</time>
      </trkpt>
      <trkpt lat="42.42981" lon="0.06603">
        <ele>659</ele>
        <time>2016-07-31T11:30:20Z</time>
      </trkpt>
      <trkpt lat="42.42981" lon="0.0661">
        <ele>658.7</ele>
        <time>2016-07-31T11:30:22Z</time>
      </trkpt>
      <trkpt lat="42.4298" lon="0.06617">
        <ele>658.3</ele>
        <time>2016-07-31T11:30:24Z</time>
      </trkpt>
      <trkpt lat="42.42981" lon="0.06623">
        <ele>658.1</ele>
        <time>2016-07-31T11:30:26Z</time>
      </trkpt>
      <trkpt lat="42.42981" lon="0.0663">
        <ele>658.2</ele>
        <time>2016-07-31T11:30:28Z</time>
      </trkpt>
      <trkpt lat="42.42982" lon="0.06637">
        <ele>658.7</ele>
        <time>2016-07-31T11:30:30Z</time>
      </trkpt>
      <trkpt lat="42.42983" lon="0.06643">
        <ele>659.3</ele>
        <time>2016-07-31T11:30:32Z</time>
      </trkpt>
      <trkpt lat="42.42985" lon="0.06649">
        <ele>660.2</ele>
        <time>2016-07-31T11:30:34Z</time>
      </trkpt>
      <trkpt lat="42.42987" lon="0.06656">
        <ele>660.9</ele>
        <time>2016-07-31T11:30:36Z</time>
      </trkpt>
      <trkpt lat="42.42988" lon="0.06662">
        <ele>661.8</ele>
        <time>2016-07-31T11:30:38Z</time>
      </trkpt>
      <trkpt lat="42.4299" lon="0.06669">
        <ele>662.5</ele>
        <time>2016-07-31T11:30:40Z</time>
      </trkpt>
      <trkpt lat="42.42991" lon="0.06676">
        <ele>663.1</ele>
        <time>2016-07-31T11:30:42Z</time>
      </trkpt>
      <trkpt lat="42.42994" lon="0.06682">
        <ele>664.2</ele>
        <time>2016-07-31T11:30:44Z</time>
      </trkpt>
      <trkpt lat="42.42995" lon="0.06685">
        <ele>664.9</ele>
        <time>2016-07-31T11:30:45Z</time>
      </trkpt>
      <trkpt lat="42.42998" lon="0.06691">
        <ele>666.4</ele>
        <time>2016-07-31T11:30:47Z</time>
      </trkpt>
      <trkpt lat="42.43002" lon="0.06696">
        <ele>668.1</ele>
        <time>2016-07-31T11:30:49Z</time>
      </trkpt>
      <trkpt lat="42.43006" lon="0.067">
        <ele>670</ele>
        <time>2016-07-31T11:30:51Z</time>
      </trkpt>
      <trkpt lat="42.4301" lon="0.06705">
        <ele>671.9</ele>
        <time>2016-07-31T11:30:53Z</time>
      </trkpt>
      <trkpt lat="42.43012" lon="0.06711">
        <ele>673.1</ele>
        <time>2016-07-31T11:30:55Z</time>
      </trkpt>
      <trkpt lat="42.43014" lon="0.06717">
        <ele>674</ele>
        <time>2016-07-31T11:30:57Z</time>
      </trkpt>
      <trkpt lat="42.43016" lon="0.06724">
        <ele>674.7</ele>
        <time>2016-07-31T11:30:59Z</time>
      </trkpt>
      <trkpt lat="42.43017" lon="0.06728">
        <ele>675</ele>
        <time>2016-07-31T11:31:00Z</time>
      </trkpt>
      <trkpt lat="42.43018" lon="0.06731">
        <ele>675.4</ele>
        <time>2016-07-31T11:31:01Z</time>
      </trkpt>
      <trkpt lat="42.43019" lon="0.06735">
        <ele>675.8</ele>
        <time>2016-07-31T11:31:02Z</time>
      </trkpt>
      <trkpt lat="42.4302" lon="0.06738">
        <ele>676.2</ele>
        <time>2016-07-31T11:31:03Z</time>
      </trkpt>
      <trkpt lat="42.43021" lon="0.06743">
        <ele>676.5</ele>
        <time>2016-07-31T11:31:04Z</time>
      </trkpt>
      <trkpt lat="42.43022" lon="0.06747">
        <ele>676.7</ele>
        <time>2016-07-31T11:31:05Z</time>
      </trkpt>
      <trkpt lat="42.43023" lon="0.06751">
        <ele>676.9</ele>
        <time>2016-07-31T11:31:06Z</time>
      </trkpt>
      <trkpt lat="42.43023" lon="0.06756">
        <ele>677</ele>
        <time>2016-07-31T11:31:07Z</time>
      </trkpt>
      <trkpt lat="42.43024" lon="0.06761">
        <ele>677.2</ele>
        <time>2016-07-31T11:31:08Z</time>
      </trkpt>
      <trkpt lat="42.43025" lon="0.06766">
        <ele>677.4</ele>
        <time>2016-07-31T11:31:09Z</time>
      </trkpt>
      <trkpt lat="42.43025" lon="0.06771">
        <ele>677.3</ele>
        <time>2016-07-31T11:31:10Z</time>
      </trkpt>
      <trkpt lat="42.43025" lon="0.06776">
        <ele>677.1</ele>
        <time>2016-07-31T11:31:11Z</time>
      </trkpt>
      <trkpt lat="42.43025" lon="0.06781">
        <ele>676.8</ele>
        <time>2016-07-31T11:31:12Z</time>
      </trkpt>
      <trkpt lat="42.43025" lon="0.06786">
        <ele>676.4</ele>
        <time>2016-07-31T11:31:13Z</time>
      </trkpt>
      <trkpt lat="42.43024" lon="0.06791">
        <ele>676</ele>
        <time>2016-07-31T11:31:14Z</time>
      </trkpt>
      <trkpt lat="42.43023" lon="0.06796">
        <ele>675.6</ele>
        <time>2016-07-31T11:31:15Z</time>
      </trkpt>
      <trkpt lat="42.43022" lon="0.06801">
        <ele>675.2</ele>
        <time>2016-07-31T11:31:16Z</time>
      </trkpt>
      <trkpt lat="42.43021" lon="0.06806">
        <ele>674.7</ele>
        <time>2016-07-31T11:31:17Z</time>
      </trkpt>
      <trkpt lat="42.4302" lon="0.06811">
        <ele>674.2</ele>
        <time>2016-07-31T11:31:18Z</time>
      </trkpt>
      <trkpt lat="42.43019" lon="0.06816">
        <ele>673.7</ele>
        <time>2016-07-31T11:31:19Z</time>
      </trkpt>
      <trkpt lat="42.43018" lon="0.06821">
        <ele>673.2</ele>
        <time>2016-07-31T11:31:20Z</time>
      </trkpt>
      <trkpt lat="42.43017" lon="0.06825">
        <ele>672.7</ele>
        <time>2016-07-31T11:31:21Z</time>
      </trkpt>
      <trkpt lat="42.43016" lon="0.0683">
        <ele>672.2</ele>
        <time>2016-07-31T11:31:22Z</time>
      </trkpt>
      <trkpt lat="42.43015" lon="0.06833">
        <ele>671.7</ele>
        <time>2016-07-31T11:31:23Z</time>
      </trkpt>
      <trkpt lat="42.43014" lon="0.06837">
        <ele>671.2</ele>
        <time>2016-07-31T11:31:24Z</time>
      </trkpt>
      <trkpt lat="42.43012" lon="0.06841">
        <ele>670.7</ele>
        <time>2016-07-31T11:31:25Z</time>
      </trkpt>
      <trkpt lat="42.43011" lon="0.06845">
        <ele>670.2</ele>
        <time>2016-07-31T11:31:26Z</time>
      </trkpt>
      <trkpt lat="42.4301" lon="0.06851">
        <ele>669.4</ele>
        <time>2016-07-31T11:31:28Z</time>
      </trkpt>
      <trkpt lat="42.4301" lon="0.06856">
        <ele>669.7</ele>
        <time>2016-07-31T11:31:30Z</time>
      </trkpt>
      <trkpt lat="42.43014" lon="0.06855">
        <ele>671.3</ele>
        <time>2016-07-31T11:31:32Z</time>
      </trkpt>
      <trkpt lat="42.43017" lon="0.0685">
        <ele>672.8</ele>
        <time>2016-07-31T11:31:34Z</time>
      </trkpt>
      <trkpt lat="42.4302" lon="0.06844">
        <ele>673.9</ele>
        <time>2016-07-31T11:31:36Z</time>
      </trkpt>
      <trkpt lat="42.43021" lon="0.06838">
        <ele>674.7</ele>
        <time>2016-07-31T11:31:38Z</time>
      </trkpt>
      <trkpt lat="42.43023" lon="0.06831">
        <ele>675.4</ele>
        <time>2016-07-31T11:31:40Z</time>
      </trkpt>
      <trkpt lat="42.43025" lon="0.06825">
        <ele>676.2</ele>
        <time>2016-07-31T11:31:42Z</time>
      </trkpt>
      <trkpt lat="42.43027" lon="0.0682">
        <ele>677.1</ele>
        <time>2016-07-31T11:31:44Z</time>
      </trkpt>
      <trkpt lat="42.43029" lon="0.06814">
        <ele>678.1</ele>
        <time>2016-07-31T11:31:46Z</time>
      </trkpt>
      <trkpt lat="42.43032" lon="0.06809">
        <ele>679.4</ele>
        <time>2016-07-31T11:31:48Z</time>
      </trkpt>
      <trkpt lat="42.43036" lon="0.0681">
        <ele>681.2</ele>
        <time>2016-07-31T11:31:50Z</time>
      </trkpt>
      <trkpt lat="42.43037" lon="0.06817">
        <ele>681.6</ele>
        <time>2016-07-31T11:31:52Z</time>
      </trkpt>
      <trkpt lat="42.43036" lon="0.06821">
        <ele>681.2</ele>
        <time>2016-07-31T11:31:53Z</time>
      </trkpt>
      <trkpt lat="42.43034" lon="0.06825">
        <ele>680.5</ele>
        <time>2016-07-31T11:31:54Z</time>
      </trkpt>
      <trkpt lat="42.43032" lon="0.06829">
        <ele>679.8</ele>
        <time>2016-07-31T11:31:55Z</time>
      </trkpt>
      <trkpt lat="42.43031" lon="0.06832">
        <ele>679.1</ele>
        <time>2016-07-31T11:31:56Z</time>
      </trkpt>
      <trkpt lat="42.4303" lon="0.06836">
        <ele>678.6</ele>
        <time>2016-07-31T11:31:57Z</time>
      </trkpt>
      <trkpt lat="42.43029" lon="0.0684">
        <ele>678.2</ele>
        <time>2016-07-31T11:31:58Z</time>
      </trkpt>
      <trkpt lat="42.43028" lon="0.06847">
        <ele>677.7</ele>
        <time>2016-07-31T11:32:00Z</time>
      </trkpt>
      <trkpt lat="42.43027" lon="0.06854">
        <ele>677.4</ele>
        <time>2016-07-31T11:32:02Z</time>
      </trkpt>
      <trkpt lat="42.43028" lon="0.06861">
        <ele>677.5</ele>
        <time>2016-07-31T11:32:04Z</time>
      </trkpt>
      <trkpt lat="42.43028" lon="0.06868">
        <ele>677.9</ele>
        <time>2016-07-31T11:32:06Z</time>
      </trkpt>
      <trkpt lat="42.43029" lon="0.06874">
        <ele>678.3</ele>
        <time>2016-07-31T11:32:08Z</time>
      </trkpt>
      <trkpt lat="42.4303" lon="0.06881">
        <ele>679.2</ele>
        <time>2016-07-31T11:32:10Z</time>
      </trkpt>
      <trkpt lat="42.43031" lon="0.06888">
        <ele>680.2</ele>
        <time>2016-07-31T11:32:12Z</time>
      </trkpt>
      <trkpt lat="42.43032" lon="0.06895">
        <ele>681.1</ele>
        <time>2016-07-31T11:32:14Z</time>
      </trkpt>
      <trkpt lat="42.43032" lon="0.06899">
        <ele>681.6</ele>
        <time>2016-07-31T11:32:15Z</time>
      </trkpt>
      <trkpt lat="42.43033" lon="0.06903">
        <ele>682.1</ele>
        <time>2016-07-31T11:32:16Z</time>
      </trkpt>
      <trkpt lat="42.43033" lon="0.06909">
        <ele>682.9</ele>
        <time>2016-07-31T11:32:18Z</time>
      </trkpt>
      <trkpt lat="42.43033" lon="0.06914">
        <ele>683.4</ele>
        <time>2016-07-31T11:32:20Z</time>
      </trkpt>
      <trkpt lat="42.43034" lon="0.06919">
        <ele>684.1</ele>
        <time>2016-07-31T11:32:22Z</time>
      </trkpt>
      <trkpt lat="42.43037" lon="0.06921">
        <ele>685.6</ele>
        <time>2016-07-31T11:32:24Z</time>
      </trkpt>
      <trkpt lat="42.43041" lon="0.0692">
        <ele>687.2</ele>
        <time>2016-07-31T11:32:26Z</time>
      </trkpt>
      <trkpt lat="42.43044" lon="0.06916">
        <ele>687.9</ele>
        <time>2016-07-31T11:32:28Z</time>
      </trkpt>
      <trkpt lat="42.43045" lon="0.06911">
        <ele>688.1</ele>
        <time>2016-07-31T11:32:30Z</time>
      </trkpt>
      <trkpt lat="42.43046" lon="0.06906">
        <ele>688</ele>
        <time>2016-07-31T11:32:32Z</time>
      </trkpt>
      <trkpt lat="42.43047" lon="0.06901">
        <ele>687.7</ele>
        <time>2016-07-31T11:32:34Z</time>
      </trkpt>
      <trkpt lat="42.43047" lon="0.06895">
        <ele>687.5</ele>
        <time>2016-07-31T11:32:36Z</time>
      </trkpt>
      <trkpt lat="42.43048" lon="0.0689">
        <ele>687.3</ele>
        <time>2016-07-31T11:32:38Z</time>
      </trkpt>
      <trkpt lat="42.43047" lon="0.06885">
        <ele>686.9</ele>
        <time>2016-07-31T11:32:40Z</time>
      </trkpt>
      <trkpt lat="42.43047" lon="0.0688">
        <ele>686.4</ele>
        <time>2016-07-31T11:32:42Z</time>
      </trkpt>
      <trkpt lat="42.43047" lon="0.06875">
        <ele>686</ele>
        <time>2016-07-31T11:32:44Z</time>
      </trkpt>
      <trkpt lat="42.43047" lon="0.0687">
        <ele>686.1</ele>
        <time>2016-07-31T11:32:46Z</time>
      </trkpt>
      <trkpt lat="42.43047" lon="0.06866">
        <ele>686.2</ele>
        <time>2016-07-31T11:32:48Z</time>
      </trkpt>
      <trkpt lat="42.43048" lon="0.0686">
        <ele>686.6</ele>
        <time>2016-07-31T11:32:50Z</time>
      </trkpt>
      <trkpt lat="42.4305" lon="0.06856">
        <ele>687.3</ele>
        <time>2016-07-31T11:32:52Z</time>
      </trkpt>
      <trkpt lat="42.43052" lon="0.06853">
        <ele>688.1</ele>
        <time>2016-07-31T11:32:54Z</time>
      </trkpt>
      <trkpt lat="42.43054" lon="0.06849">
        <ele>688.8</ele>
        <time>2016-07-31T11:32:56Z</time>
      </trkpt>
      <trkpt lat="42.43055" lon="0.06844">
        <ele>689.4</ele>
        <time>2016-07-31T11:32:59Z</time>
      </trkpt>
      <trkpt lat="42.43056" lon="0.0684">
        <ele>689.9</ele>
        <time>2016-07-31T11:33:01Z</time>
      </trkpt>
      <trkpt lat="42.43058" lon="0.06836">
        <ele>690.5</ele>
        <time>2016-07-31T11:33:04Z</time>
      </trkpt>
      <trkpt lat="42.43059" lon="0.06831">
        <ele>691.3</ele>
        <time>2016-07-31T11:33:07Z</time>
      </trkpt>
      <trkpt lat="42.43061" lon="0.06828">
        <ele>692.1</ele>
        <time>2016-07-31T11:33:09Z</time>
      </trkpt>
      <trkpt lat="42.43063" lon="0.06825">
        <ele>692.9</ele>
        <time>2016-07-31T11:33:11Z</time>
      </trkpt>
      <trkpt lat="42.43065" lon="0.06823">
        <ele>693.7</ele>
        <time>2016-07-31T11:33:13Z</time>
      </trkpt>
      <trkpt lat="42.43067" lon="0.06821">
        <ele>694.6</ele>
        <time>2016-07-31T11:33:15Z</time>
      </trkpt>
      <trkpt lat="42.43071" lon="0.06818">
        <ele>696.2</ele>
        <time>2016-07-31T11:33:18Z</time>
      </trkpt>
      <trkpt lat="42.43074" lon="0.06818">
        <ele>697.3</ele>
        <time>2016-07-31T11:33:20Z</time>
      </trkpt>
      <trkpt lat="42.43077" lon="0.0682">
        <ele>698.9</ele>
        <time>2016-07-31T11:33:23Z</time>
      </trkpt>
      <trkpt lat="42.4308" lon="0.06821">
        <ele>699.9</ele>
        <time>2016-07-31T11:33:25Z</time>
      </trkpt>
      <trkpt lat="42.43084" lon="0.06823">
        <ele>701.4</ele>
        <time>2016-07-31T11:33:28Z</time>
      </trkpt>
      <trkpt lat="42.43087" lon="0.06826">
        <ele>702.6</ele>
        <time>2016-07-31T11:33:31Z</time>
      </trkpt>
      <trkpt lat="42.43089" lon="0.06828">
        <ele>703.5</ele>
        <time>2016-07-31T11:33:33Z</time>
      </trkpt>
      <trkpt lat="42.43092" lon="0.06829">
        <ele>704.7</ele>
        <time>2016-07-31T11:33:35Z</time>
      </trkpt>
      <trkpt lat="42.43095" lon="0.06829">
        <ele>705.9</ele>
        <time>2016-07-31T11:33:37Z</time>
      </trkpt>
      <trkpt lat="42.43098" lon="0.06827">
        <ele>707.1</ele>
        <time>2016-07-31T11:33:39Z</time>
      </trkpt>
      <trkpt lat="42.43101" lon="0.06825">
        <ele>708.3</ele>
        <time>2016-07-31T11:33:41Z</time>
      </trkpt>
      <trkpt lat="42.43103" lon="0.06823">
        <ele>709.4</ele>
        <time>2016-07-31T11:33:43Z</time>
      </trkpt>
      <trkpt lat="42.43105" lon="0.0682">
        <ele>710.3</ele>
        <time>2016-07-31T11:33:45Z</time>
      </trkpt>
      <trkpt lat="42.43106" lon="0.06816">
        <ele>710.9</ele>
        <time>2016-07-31T11:33:47Z</time>
      </trkpt>
      <trkpt lat="42.43106" lon="0.06811">
        <ele>711.1</ele>
        <time>2016-07-31T11:33:49Z</time>
      </trkpt>
      <trkpt lat="42.43106" lon="0.06807">
        <ele>711.1</ele>
        <time>2016-07-31T11:33:51Z</time>
      </trkpt>
      <trkpt lat="42.43105" lon="0.06803">
        <ele>711</ele>
        <time>2016-07-31T11:33:53Z</time>
      </trkpt>
      <trkpt lat="42.43104" lon="0.06797">
        <ele>710.5</ele>
        <time>2016-07-31T11:33:55Z</time>
      </trkpt>
      <trkpt lat="42.43102" lon="0.06792">
        <ele>709.9</ele>
        <time>2016-07-31T11:33:57Z</time>
      </trkpt>
      <trkpt lat="42.43102" lon="0.06788">
        <ele>710.4</ele>
        <time>2016-07-31T11:34:07Z</time>
      </trkpt>
      <trkpt lat="42.43105" lon="0.06786">
        <ele>711.6</ele>
        <time>2016-07-31T11:34:11Z</time>
      </trkpt>
      <trkpt lat="42.43107" lon="0.06785">
        <ele>712.9</ele>
        <time>2016-07-31T11:34:17Z</time>
      </trkpt>
      <trkpt lat="42.43108" lon="0.06781">
        <ele>713.4</ele>
        <time>2016-07-31T11:34:24Z</time>
      </trkpt>
      <trkpt lat="42.43109" lon="0.06776">
        <ele>714.3</ele>
        <time>2016-07-31T11:34:28Z</time>
      </trkpt>
      <trkpt lat="42.4311" lon="0.06772">
        <ele>715</ele>
        <time>2016-07-31T11:34:31Z</time>
      </trkpt>
      <trkpt lat="42.4311" lon="0.06768">
        <ele>715.2</ele>
        <time>2016-07-31T11:34:36Z</time>
      </trkpt>
      <trkpt lat="42.4311" lon="0.06763">
        <ele>715.5</ele>
        <time>2016-07-31T11:34:39Z</time>
      </trkpt>
      <trkpt lat="42.4311" lon="0.06759">
        <ele>716</ele>
        <time>2016-07-31T11:34:43Z</time>
      </trkpt>
      <trkpt lat="42.43109" lon="0.06755">
        <ele>715.9</ele>
        <time>2016-07-31T11:34:47Z</time>
      </trkpt>
      <trkpt lat="42.43107" lon="0.06752">
        <ele>715.4</ele>
        <time>2016-07-31T11:34:50Z</time>
      </trkpt>
      <trkpt lat="42.43106" lon="0.06748">
        <ele>715.1</ele>
        <time>2016-07-31T11:34:54Z</time>
      </trkpt>
      <trkpt lat="42.43106" lon="0.06743">
        <ele>715.5</ele>
        <time>2016-07-31T11:34:58Z</time>
      </trkpt>
      <trkpt lat="42.43106" lon="0.06739">
        <ele>715.8</ele>
        <time>2016-07-31T11:35:01Z</time>
      </trkpt>
      <trkpt lat="42.43107" lon="0.06735">
        <ele>716.3</ele>
        <time>2016-07-31T11:35:04Z</time>
      </trkpt>
      <trkpt lat="42.43106" lon="0.06731">
        <ele>716.5</ele>
        <time>2016-07-31T11:35:07Z</time>
      </trkpt>
      <trkpt lat="42.43105" lon="0.06727">
        <ele>716.1</ele>
        <time>2016-07-31T11:35:13Z</time>
      </trkpt>
      <trkpt lat="42.43103" lon="0.06722">
        <ele>715.7</ele>
        <time>2016-07-31T11:35:16Z</time>
      </trkpt>
      <trkpt lat="42.43101" lon="0.06719">
        <ele>715.2</ele>
        <time>2016-07-31T11:35:19Z</time>
      </trkpt>
      <trkpt lat="42.431" lon="0.06715">
        <ele>714.6</ele>
        <time>2016-07-31T11:35:22Z</time>
      </trkpt>
      <trkpt lat="42.43099" lon="0.06711">
        <ele>714.4</ele>
        <time>2016-07-31T11:35:25Z</time>
      </trkpt>
      <trkpt lat="42.43098" lon="0.06707">
        <ele>714.6</ele>
        <time>2016-07-31T11:35:28Z</time>
      </trkpt>
      <trkpt lat="42.43097" lon="0.06703">
        <ele>714.4</ele>
        <time>2016-07-31T11:35:31Z</time>
      </trkpt>
      <trkpt lat="42.43096" lon="0.06698">
        <ele>714.7</ele>
        <time>2016-07-31T11:35:34Z</time>
      </trkpt>
      <trkpt lat="42.43098" lon="0.06695">
        <ele>715.8</ele>
        <time>2016-07-31T11:35:36Z</time>
      </trkpt>
      <trkpt lat="42.43099" lon="0.06691">
        <ele>716.9</ele>
        <time>2016-07-31T11:35:39Z</time>
      </trkpt>
      <trkpt lat="42.43099" lon="0.06687">
        <ele>717.6</ele>
        <time>2016-07-31T11:35:42Z</time>
      </trkpt>
      <trkpt lat="42.431" lon="0.06681">
        <ele>718.6</ele>
        <time>2016-07-31T11:35:44Z</time>
      </trkpt>
      <trkpt lat="42.431" lon="0.06676">
        <ele>719</ele>
        <time>2016-07-31T11:35:46Z</time>
      </trkpt>
      <trkpt lat="42.43098" lon="0.06673">
        <ele>718.7</ele>
        <time>2016-07-31T11:35:48Z</time>
      </trkpt>
      <trkpt lat="42.43101" lon="0.0667">
        <ele>720.4</ele>
        <time>2016-07-31T11:35:53Z</time>
      </trkpt>
      <trkpt lat="42.43103" lon="0.06668">
        <ele>721.9</ele>
        <time>2016-07-31T11:35:57Z</time>
      </trkpt>
      <trkpt lat="42.43105" lon="0.06664">
        <ele>723.1</ele>
        <time>2016-07-31T11:36:00Z</time>
      </trkpt>
      <trkpt lat="42.43104" lon="0.06659">
        <ele>723.3</ele>
        <time>2016-07-31T11:36:03Z</time>
      </trkpt>
      <trkpt lat="42.43102" lon="0.06654">
        <ele>723</ele>
        <time>2016-07-31T11:36:06Z</time>
      </trkpt>
      <trkpt lat="42.43101" lon="0.06649">
        <ele>723</ele>
        <time>2016-07-31T11:36:08Z</time>
      </trkpt>
      <trkpt lat="42.431" lon="0.06645">
        <ele>723</ele>
        <time>2016-07-31T11:36:09Z</time>
      </trkpt>
      <trkpt lat="42.43099" lon="0.06641">
        <ele>723</ele>
        <time>2016-07-31T11:36:10Z</time>
      </trkpt>
      <trkpt lat="42.43098" lon="0.06637">
        <ele>722.9</ele>
        <time>2016-07-31T11:36:11Z</time>
      </trkpt>
      <trkpt lat="42.43097" lon="0.06634">
        <ele>722.7</ele>
        <time>2016-07-31T11:36:12Z</time>
      </trkpt>
      <trkpt lat="42.43096" lon="0.06631">
        <ele>722.4</ele>
        <time>2016-07-31T11:36:13Z</time>
      </trkpt>
      <trkpt lat="42.43095" lon="0.06627">
        <ele>722</ele>
        <time>2016-07-31T11:36:14Z</time>
      </trkpt>
      <trkpt lat="42.43094" lon="0.06624">
        <ele>721.4</ele>
        <time>2016-07-31T11:36:15Z</time>
      </trkpt>
      <trkpt lat="42.43091" lon="0.06619">
        <ele>719.8</ele>
        <time>2016-07-31T11:36:17Z</time>
      </trkpt>
      <trkpt lat="42.43089" lon="0.06614">
        <ele>718.4</ele>
        <time>2016-07-31T11:36:19Z</time>
      </trkpt>
      <trkpt lat="42.43086" lon="0.06609">
        <ele>716.5</ele>
        <time>2016-07-31T11:36:21Z</time>
      </trkpt>
      <trkpt lat="42.43083" lon="0.06603">
        <ele>714.5</ele>
        <time>2016-07-31T11:36:23Z</time>
      </trkpt>
      <trkpt lat="42.43081" lon="0.06599">
        <ele>713.3</ele>
        <time>2016-07-31T11:36:24Z</time>
      </trkpt>
      <trkpt lat="42.4308" lon="0.06596">
        <ele>712.1</ele>
        <time>2016-07-31T11:36:25Z</time>
      </trkpt>
      <trkpt lat="42.43077" lon="0.06593">
        <ele>710.7</ele>
        <time>2016-07-31T11:36:26Z</time>
      </trkpt>
      <trkpt lat="42.43075" lon="0.06589">
        <ele>709.4</ele>
        <time>2016-07-31T11:36:27Z</time>
      </trkpt>
      <trkpt lat="42.43074" lon="0.06586">
        <ele>708.3</ele>
        <time>2016-07-31T11:36:28Z</time>
      </trkpt>
      <trkpt lat="42.43073" lon="0.06582">
        <ele>707.6</ele>
        <time>2016-07-31T11:36:29Z</time>
      </trkpt>
      <trkpt lat="42.43072" lon="0.06578">
        <ele>707.3</ele>
        <time>2016-07-31T11:36:30Z</time>
      </trkpt>
      <trkpt lat="42.43072" lon="0.06572">
        <ele>707.1</ele>
        <time>2016-07-31T11:36:32Z</time>
      </trkpt>
      <trkpt lat="42.43071" lon="0.06565">
        <ele>706.3</ele>
        <time>2016-07-31T11:36:34Z</time>
      </trkpt>
      <trkpt lat="42.43071" lon="0.06558">
        <ele>705.9</ele>
        <time>2016-07-31T11:36:36Z</time>
      </trkpt>
      <trkpt lat="42.43071" lon="0.06551">
        <ele>705.4</ele>
        <time>2016-07-31T11:36:38Z</time>
      </trkpt>
      <trkpt lat="42.4307" lon="0.06547">
        <ele>705.1</ele>
        <time>2016-07-31T11:36:39Z</time>
      </trkpt>
      <trkpt lat="42.43071" lon="0.0654">
        <ele>704.6</ele>
        <time>2016-07-31T11:36:41Z</time>
      </trkpt>
      <trkpt lat="42.43071" lon="0.06536">
        <ele>704.3</ele>
        <time>2016-07-31T11:36:42Z</time>
      </trkpt>
      <trkpt lat="42.43072" lon="0.0653">
        <ele>704</ele>
        <time>2016-07-31T11:36:44Z</time>
      </trkpt>
      <trkpt lat="42.43075" lon="0.06525">
        <ele>704.2</ele>
        <time>2016-07-31T11:36:46Z</time>
      </trkpt>
      <trkpt lat="42.43076" lon="0.06521">
        <ele>704.4</ele>
        <time>2016-07-31T11:36:48Z</time>
      </trkpt>
      <trkpt lat="42.43079" lon="0.06515">
        <ele>704.5</ele>
        <time>2016-07-31T11:36:50Z</time>
      </trkpt>
      <trkpt lat="42.43081" lon="0.06509">
        <ele>704.8</ele>
        <time>2016-07-31T11:36:52Z</time>
      </trkpt>
      <trkpt lat="42.43084" lon="0.06504">
        <ele>705.2</ele>
        <time>2016-07-31T11:36:54Z</time>
      </trkpt>
      <trkpt lat="42.43088" lon="0.06498">
        <ele>705.5</ele>
        <time>2016-07-31T11:36:56Z</time>
      </trkpt>
      <trkpt lat="42.43089" lon="0.06494">
        <ele>705.4</ele>
        <time>2016-07-31T11:36:57Z</time>
      </trkpt>
      <trkpt lat="42.43091" lon="0.0649">
        <ele>705.4</ele>
        <time>2016-07-31T11:36:58Z</time>
      </trkpt>
      <trkpt lat="42.43093" lon="0.06486">
        <ele>705.4</ele>
        <time>2016-07-31T11:36:59Z</time>
      </trkpt>
      <trkpt lat="42.43095" lon="0.06483">
        <ele>705.6</ele>
        <time>2016-07-31T11:37:00Z</time>
      </trkpt>
      <trkpt lat="42.43097" lon="0.0648">
        <ele>705.8</ele>
        <time>2016-07-31T11:37:01Z</time>
      </trkpt>
      <trkpt lat="42.431" lon="0.06476">
        <ele>706.1</ele>
        <time>2016-07-31T11:37:03Z</time>
      </trkpt>
      <trkpt lat="42.43102" lon="0.06472">
        <ele>706</ele>
        <time>2016-07-31T11:37:05Z</time>
      </trkpt>
      <trkpt lat="42.43105" lon="0.06466">
        <ele>705.7</ele>
        <time>2016-07-31T11:37:07Z</time>
      </trkpt>
      <trkpt lat="42.43107" lon="0.06462">
        <ele>705.3</ele>
        <time>2016-07-31T11:37:08Z</time>
      </trkpt>
      <trkpt lat="42.43108" lon="0.06458">
        <ele>704.9</ele>
        <time>2016-07-31T11:37:09Z</time>
      </trkpt>
      <trkpt lat="42.4311" lon="0.06455">
        <ele>704.9</ele>
        <time>2016-07-31T11:37:10Z</time>
      </trkpt>
      <trkpt lat="42.43114" lon="0.06451">
        <ele>705.2</ele>
        <time>2016-07-31T11:37:12Z</time>
      </trkpt>
      <trkpt lat="42.43117" lon="0.06446">
        <ele>705.5</ele>
        <time>2016-07-31T11:37:14Z</time>
      </trkpt>
      <trkpt lat="42.4312" lon="0.06443">
        <ele>705.7</ele>
        <time>2016-07-31T11:37:15Z</time>
      </trkpt>
      <trkpt lat="42.43123" lon="0.06441">
        <ele>706.1</ele>
        <time>2016-07-31T11:37:16Z</time>
      </trkpt>
      <trkpt lat="42.43126" lon="0.06439">
        <ele>706.7</ele>
        <time>2016-07-31T11:37:17Z</time>
      </trkpt>
      <trkpt lat="42.43129" lon="0.06437">
        <ele>707.5</ele>
        <time>2016-07-31T11:37:18Z</time>
      </trkpt>
      <trkpt lat="42.43132" lon="0.06435">
        <ele>708.5</ele>
        <time>2016-07-31T11:37:20Z</time>
      </trkpt>
      <trkpt lat="42.43136" lon="0.06432">
        <ele>709.2</ele>
        <time>2016-07-31T11:37:22Z</time>
      </trkpt>
      <trkpt lat="42.43139" lon="0.06429">
        <ele>709.8</ele>
        <time>2016-07-31T11:37:24Z</time>
      </trkpt>
      <trkpt lat="42.43143" lon="0.06425">
        <ele>710.3</ele>
        <time>2016-07-31T11:37:26Z</time>
      </trkpt>
      <trkpt lat="42.43145" lon="0.06422">
        <ele>710.4</ele>
        <time>2016-07-31T11:37:27Z</time>
      </trkpt>
      <trkpt lat="42.43147" lon="0.06419">
        <ele>710.5</ele>
        <time>2016-07-31T11:37:28Z</time>
      </trkpt>
      <trkpt lat="42.4315" lon="0.06416">
        <ele>710.6</ele>
        <time>2016-07-31T11:37:29Z</time>
      </trkpt>
      <trkpt lat="42.43152" lon="0.06413">
        <ele>710.8</ele>
        <time>2016-07-31T11:37:30Z</time>
      </trkpt>
      <trkpt lat="42.43154" lon="0.06411">
        <ele>711.2</ele>
        <time>2016-07-31T11:37:31Z</time>
      </trkpt>
      <trkpt lat="42.43157" lon="0.06409">
        <ele>711.5</ele>
        <time>2016-07-31T11:37:32Z</time>
      </trkpt>
      <trkpt lat="42.43159" lon="0.06406">
        <ele>711.6</ele>
        <time>2016-07-31T11:37:33Z</time>
      </trkpt>
      <trkpt lat="42.43161" lon="0.06403">
        <ele>711.4</ele>
        <time>2016-07-31T11:37:34Z</time>
      </trkpt>
      <trkpt lat="42.43163" lon="0.06399">
        <ele>711.1</ele>
        <time>2016-07-31T11:37:35Z</time>
      </trkpt>
      <trkpt lat="42.43164" lon="0.06396">
        <ele>710.7</ele>
        <time>2016-07-31T11:37:36Z</time>
      </trkpt>
      <trkpt lat="42.43165" lon="0.06393">
        <ele>710.3</ele>
        <time>2016-07-31T11:37:37Z</time>
      </trkpt>
      <trkpt lat="42.43167" lon="0.0639">
        <ele>709.8</ele>
        <time>2016-07-31T11:37:38Z</time>
      </trkpt>
      <trkpt lat="42.43169" lon="0.06386">
        <ele>709.6</ele>
        <time>2016-07-31T11:37:39Z</time>
      </trkpt>
      <trkpt lat="42.43171" lon="0.06383">
        <ele>709.5</ele>
        <time>2016-07-31T11:37:40Z</time>
      </trkpt>
      <trkpt lat="42.43174" lon="0.0638">
        <ele>709.5</ele>
        <time>2016-07-31T11:37:41Z</time>
      </trkpt>
      <trkpt lat="42.43176" lon="0.06377">
        <ele>709.5</ele>
        <time>2016-07-31T11:37:42Z</time>
      </trkpt>
      <trkpt lat="42.43179" lon="0.06374">
        <ele>709.5</ele>
        <time>2016-07-31T11:37:43Z</time>
      </trkpt>
      <trkpt lat="42.4318" lon="0.06371">
        <ele>709.2</ele>
        <time>2016-07-31T11:37:44Z</time>
      </trkpt>
      <trkpt lat="42.43182" lon="0.06367">
        <ele>708.7</ele>
        <time>2016-07-31T11:37:45Z</time>
      </trkpt>
      <trkpt lat="42.43184" lon="0.06363">
        <ele>708.1</ele>
        <time>2016-07-31T11:37:46Z</time>
      </trkpt>
      <trkpt lat="42.43185" lon="0.06359">
        <ele>707.6</ele>
        <time>2016-07-31T11:37:47Z</time>
      </trkpt>
      <trkpt lat="42.43187" lon="0.06356">
        <ele>707.1</ele>
        <time>2016-07-31T11:37:48Z</time>
      </trkpt>
      <trkpt lat="42.43188" lon="0.06352">
        <ele>706.7</ele>
        <time>2016-07-31T11:37:49Z</time>
      </trkpt>
      <trkpt lat="42.43192" lon="0.06347">
        <ele>706.5</ele>
        <time>2016-07-31T11:37:51Z</time>
      </trkpt>
      <trkpt lat="42.43194" lon="0.06345">
        <ele>706.6</ele>
        <time>2016-07-31T11:37:52Z</time>
      </trkpt>
      <trkpt lat="42.43197" lon="0.06343">
        <ele>706.8</ele>
        <time>2016-07-31T11:37:53Z</time>
      </trkpt>
      <trkpt lat="42.43199" lon="0.06341">
        <ele>706.8</ele>
        <time>2016-07-31T11:37:54Z</time>
      </trkpt>
      <trkpt lat="42.43202" lon="0.06337">
        <ele>706.7</ele>
        <time>2016-07-31T11:37:56Z</time>
      </trkpt>
      <trkpt lat="42.43205" lon="0.06334">
        <ele>706.5</ele>
        <time>2016-07-31T11:38:03Z</time>
      </trkpt>
      <trkpt lat="42.43209" lon="0.06332">
        <ele>707.3</ele>
        <time>2016-07-31T11:38:05Z</time>
      </trkpt>
      <trkpt lat="42.43212" lon="0.0633">
        <ele>707.8</ele>
        <time>2016-07-31T11:38:14Z</time>
      </trkpt>
      <trkpt lat="42.43213" lon="0.06325">
        <ele>706.4</ele>
        <time>2016-07-31T11:38:18Z</time>
      </trkpt>
      <trkpt lat="42.43212" lon="0.0632">
        <ele>705</ele>
        <time>2016-07-31T11:38:22Z</time>
      </trkpt>
      <trkpt lat="42.43213" lon="0.06316">
        <ele>703.8</ele>
        <time>2016-07-31T11:38:24Z</time>
      </trkpt>
      <trkpt lat="42.43215" lon="0.06309">
        <ele>702.5</ele>
        <time>2016-07-31T11:38:26Z</time>
      </trkpt>
      <trkpt lat="42.43218" lon="0.06306">
        <ele>702.2</ele>
        <time>2016-07-31T11:38:28Z</time>
      </trkpt>
      <trkpt lat="42.43221" lon="0.06306">
        <ele>703.4</ele>
        <time>2016-07-31T11:38:35Z</time>
      </trkpt>
      <trkpt lat="42.43224" lon="0.06308">
        <ele>704.8</ele>
        <time>2016-07-31T11:38:38Z</time>
      </trkpt>
      <trkpt lat="42.43227" lon="0.06309">
        <ele>706.3</ele>
        <time>2016-07-31T11:38:41Z</time>
      </trkpt>
      <trkpt lat="42.43229" lon="0.06311">
        <ele>707.7</ele>
        <time>2016-07-31T11:38:45Z</time>
      </trkpt>
      <trkpt lat="42.43233" lon="0.06309">
        <ele>708.2</ele>
        <time>2016-07-31T11:38:52Z</time>
      </trkpt>
      <trkpt lat="42.43236" lon="0.06307">
        <ele>708.6</ele>
        <time>2016-07-31T11:38:57Z</time>
      </trkpt>
      <trkpt lat="42.43238" lon="0.06308">
        <ele>709.7</ele>
        <time>2016-07-31T11:39:01Z</time>
      </trkpt>
      <trkpt lat="42.43241" lon="0.06308">
        <ele>710.7</ele>
        <time>2016-07-31T11:39:05Z</time>
      </trkpt>
      <trkpt lat="42.43244" lon="0.06307">
        <ele>711.3</ele>
        <time>2016-07-31T11:39:13Z</time>
      </trkpt>
      <trkpt lat="42.43247" lon="0.06308">
        <ele>712.5</ele>
        <time>2016-07-31T11:39:19Z</time>
      </trkpt>
      <trkpt lat="42.43251" lon="0.06308">
        <ele>713.8</ele>
        <time>2016-07-31T11:39:22Z</time>
      </trkpt>
      <trkpt lat="42.43254" lon="0.06307">
        <ele>714.6</ele>
        <time>2016-07-31T11:39:25Z</time>
      </trkpt>
      <trkpt lat="42.43257" lon="0.06305">
        <ele>715.1</ele>
        <time>2016-07-31T11:39:29Z</time>
      </trkpt>
      <trkpt lat="42.43259" lon="0.06303">
        <ele>715.1</ele>
        <time>2016-07-31T11:39:32Z</time>
      </trkpt>
      <trkpt lat="42.43262" lon="0.063">
        <ele>715.1</ele>
        <time>2016-07-31T11:39:36Z</time>
      </trkpt>
      <trkpt lat="42.43265" lon="0.06301">
        <ele>716.2</ele>
        <time>2016-07-31T11:39:41Z</time>
      </trkpt>
      <trkpt lat="42.43268" lon="0.063">
        <ele>717</ele>
        <time>2016-07-31T11:39:43Z</time>
      </trkpt>
      <trkpt lat="42.43273" lon="0.06301">
        <ele>718.9</ele>
        <time>2016-07-31T11:39:45Z</time>
      </trkpt>
      <trkpt lat="42.43275" lon="0.06303">
        <ele>720.3</ele>
        <time>2016-07-31T11:39:46Z</time>
      </trkpt>
      <trkpt lat="42.4328" lon="0.06305">
        <ele>722.4</ele>
        <time>2016-07-31T11:39:48Z</time>
      </trkpt>
      <trkpt lat="42.43282" lon="0.06303">
        <ele>722.5</ele>
        <time>2016-07-31T11:39:55Z</time>
      </trkpt>
      <trkpt lat="42.43286" lon="0.06301">
        <ele>723.3</ele>
        <time>2016-07-31T11:40:01Z</time>
      </trkpt>
      <trkpt lat="42.4329" lon="0.06301">
        <ele>724.5</ele>
        <time>2016-07-31T11:40:03Z</time>
      </trkpt>
      <trkpt lat="42.43295" lon="0.063">
        <ele>724.8</ele>
        <time>2016-07-31T11:40:05Z</time>
      </trkpt>
      <trkpt lat="42.43297" lon="0.06298">
        <ele>724.5</ele>
        <time>2016-07-31T11:40:06Z</time>
      </trkpt>
      <trkpt lat="42.43301" lon="0.06296">
        <ele>724</ele>
        <time>2016-07-31T11:40:08Z</time>
      </trkpt>
      <trkpt lat="42.43304" lon="0.06295">
        <ele>723.8</ele>
        <time>2016-07-31T11:40:10Z</time>
      </trkpt>
      <trkpt lat="42.43307" lon="0.06295">
        <ele>724</ele>
        <time>2016-07-31T11:40:15Z</time>
      </trkpt>
      <trkpt lat="42.43308" lon="0.06299">
        <ele>725.5</ele>
        <time>2016-07-31T11:40:18Z</time>
      </trkpt>
      <trkpt lat="42.43308" lon="0.06304">
        <ele>727</ele>
        <time>2016-07-31T11:40:21Z</time>
      </trkpt>
      <trkpt lat="42.4331" lon="0.06307">
        <ele>728.2</ele>
        <time>2016-07-31T11:40:24Z</time>
      </trkpt>
      <trkpt lat="42.43312" lon="0.06311">
        <ele>729.5</ele>
        <time>2016-07-31T11:40:28Z</time>
      </trkpt>
      <trkpt lat="42.43315" lon="0.06312">
        <ele>730.2</ele>
        <time>2016-07-31T11:40:31Z</time>
      </trkpt>
      <trkpt lat="42.43318" lon="0.06311">
        <ele>730.2</ele>
        <time>2016-07-31T11:40:35Z</time>
      </trkpt>
      <trkpt lat="42.4332" lon="0.06316">
        <ele>731.8</ele>
        <time>2016-07-31T11:40:40Z</time>
      </trkpt>
      <trkpt lat="42.43321" lon="0.06319">
        <ele>733.1</ele>
        <time>2016-07-31T11:40:45Z</time>
      </trkpt>
      <trkpt lat="42.43323" lon="0.06323">
        <ele>734.3</ele>
        <time>2016-07-31T11:40:48Z</time>
      </trkpt>
      <trkpt lat="42.43325" lon="0.06325">
        <ele>735.4</ele>
        <time>2016-07-31T11:40:51Z</time>
      </trkpt>
      <trkpt lat="42.43329" lon="0.06324">
        <ele>735</ele>
        <time>2016-07-31T11:40:54Z</time>
      </trkpt>
      <trkpt lat="42.43331" lon="0.0632">
        <ele>734.1</ele>
        <time>2016-07-31T11:40:57Z</time>
      </trkpt>
      <trkpt lat="42.43333" lon="0.06317">
        <ele>733.2</ele>
        <time>2016-07-31T11:41:01Z</time>
      </trkpt>
      <trkpt lat="42.43336" lon="0.06318">
        <ele>733.7</ele>
        <time>2016-07-31T11:41:05Z</time>
      </trkpt>
      <trkpt lat="42.43338" lon="0.06322">
        <ele>735</ele>
        <time>2016-07-31T11:41:08Z</time>
      </trkpt>
      <trkpt lat="42.4334" lon="0.06326">
        <ele>736.9</ele>
        <time>2016-07-31T11:41:10Z</time>
      </trkpt>
      <trkpt lat="42.43343" lon="0.06328">
        <ele>737.7</ele>
        <time>2016-07-31T11:41:14Z</time>
      </trkpt>
      <trkpt lat="42.43348" lon="0.06329">
        <ele>738.5</ele>
        <time>2016-07-31T11:41:17Z</time>
      </trkpt>
      <trkpt lat="42.43351" lon="0.06329">
        <ele>738.4</ele>
        <time>2016-07-31T11:41:20Z</time>
      </trkpt>
      <trkpt lat="42.43354" lon="0.06327">
        <ele>738.1</ele>
        <time>2016-07-31T11:41:24Z</time>
      </trkpt>
      <trkpt lat="42.43357" lon="0.06324">
        <ele>737.4</ele>
        <time>2016-07-31T11:41:27Z</time>
      </trkpt>
      <trkpt lat="42.4336" lon="0.06325">
        <ele>737.8</ele>
        <time>2016-07-31T11:41:31Z</time>
      </trkpt>
      <trkpt lat="42.43364" lon="0.06328">
        <ele>739.4</ele>
        <time>2016-07-31T11:41:35Z</time>
      </trkpt>
      <trkpt lat="42.43366" lon="0.06331">
        <ele>740.6</ele>
        <time>2016-07-31T11:41:37Z</time>
      </trkpt>
      <trkpt lat="42.43368" lon="0.06334">
        <ele>741.8</ele>
        <time>2016-07-31T11:41:39Z</time>
      </trkpt>
      <trkpt lat="42.43371" lon="0.06336">
        <ele>742.6</ele>
        <time>2016-07-31T11:41:41Z</time>
      </trkpt>
      <trkpt lat="42.43375" lon="0.06337">
        <ele>743.4</ele>
        <time>2016-07-31T11:41:43Z</time>
      </trkpt>
      <trkpt lat="42.43378" lon="0.06341">
        <ele>744</ele>
        <time>2016-07-31T11:41:45Z</time>
      </trkpt>
      <trkpt lat="42.4338" lon="0.06346">
        <ele>745.3</ele>
        <time>2016-07-31T11:41:47Z</time>
      </trkpt>
      <trkpt lat="42.43382" lon="0.06348">
        <ele>745.3</ele>
        <time>2016-07-31T11:41:50Z</time>
      </trkpt>
      <trkpt lat="42.43385" lon="0.06352">
        <ele>745.6</ele>
        <time>2016-07-31T11:41:52Z</time>
      </trkpt>
      <trkpt lat="42.43388" lon="0.06355">
        <ele>746.3</ele>
        <time>2016-07-31T11:41:54Z</time>
      </trkpt>
      <trkpt lat="42.43391" lon="0.06359">
        <ele>746.3</ele>
        <time>2016-07-31T11:41:56Z</time>
      </trkpt>
      <trkpt lat="42.43395" lon="0.06364">
        <ele>747</ele>
        <time>2016-07-31T11:41:58Z</time>
      </trkpt>
      <trkpt lat="42.43396" lon="0.06367">
        <ele>747.6</ele>
        <time>2016-07-31T11:41:59Z</time>
      </trkpt>
      <trkpt lat="42.43399" lon="0.0637">
        <ele>747.7</ele>
        <time>2016-07-31T11:42:00Z</time>
      </trkpt>
      <trkpt lat="42.43403" lon="0.06372">
        <ele>747.3</ele>
        <time>2016-07-31T11:42:01Z</time>
      </trkpt>
      <trkpt lat="42.43406" lon="0.06374">
        <ele>746.9</ele>
        <time>2016-07-31T11:42:02Z</time>
      </trkpt>
      <trkpt lat="42.4341" lon="0.06377">
        <ele>746.4</ele>
        <time>2016-07-31T11:42:03Z</time>
      </trkpt>
      <trkpt lat="42.43415" lon="0.0638">
        <ele>746.2</ele>
        <time>2016-07-31T11:42:04Z</time>
      </trkpt>
      <trkpt lat="42.43418" lon="0.06384">
        <ele>746.2</ele>
        <time>2016-07-31T11:42:05Z</time>
      </trkpt>
      <trkpt lat="42.4342" lon="0.06389">
        <ele>746.8</ele>
        <time>2016-07-31T11:42:06Z</time>
      </trkpt>
      <trkpt lat="42.43422" lon="0.06394">
        <ele>747.5</ele>
        <time>2016-07-31T11:42:07Z</time>
      </trkpt>
      <trkpt lat="42.43424" lon="0.06398">
        <ele>748.1</ele>
        <time>2016-07-31T11:42:08Z</time>
      </trkpt>
      <trkpt lat="42.43425" lon="0.06402">
        <ele>748.8</ele>
        <time>2016-07-31T11:42:09Z</time>
      </trkpt>
      <trkpt lat="42.43426" lon="0.06406">
        <ele>749.5</ele>
        <time>2016-07-31T11:42:10Z</time>
      </trkpt>
      <trkpt lat="42.43427" lon="0.0641">
        <ele>750.1</ele>
        <time>2016-07-31T11:42:11Z</time>
      </trkpt>
      <trkpt lat="42.43428" lon="0.06415">
        <ele>751.2</ele>
        <time>2016-07-31T11:42:13Z</time>
      </trkpt>
      <trkpt lat="42.4343" lon="0.06421">
        <ele>752.2</ele>
        <time>2016-07-31T11:42:15Z</time>
      </trkpt>
      <trkpt lat="42.43432" lon="0.06426">
        <ele>752.5</ele>
        <time>2016-07-31T11:42:17Z</time>
      </trkpt>
      <trkpt lat="42.43434" lon="0.06429">
        <ele>752.2</ele>
        <time>2016-07-31T11:42:18Z</time>
      </trkpt>
      <trkpt lat="42.43437" lon="0.06431">
        <ele>751.7</ele>
        <time>2016-07-31T11:42:19Z</time>
      </trkpt>
      <trkpt lat="42.4344" lon="0.06433">
        <ele>751.1</ele>
        <time>2016-07-31T11:42:21Z</time>
      </trkpt>
      <trkpt lat="42.43443" lon="0.06436">
        <ele>750.5</ele>
        <time>2016-07-31T11:42:23Z</time>
      </trkpt>
      <trkpt lat="42.43445" lon="0.06443">
        <ele>751</ele>
        <time>2016-07-31T11:42:25Z</time>
      </trkpt>
      <trkpt lat="42.43446" lon="0.06449">
        <ele>751.8</ele>
        <time>2016-07-31T11:42:26Z</time>
      </trkpt>
      <trkpt lat="42.43448" lon="0.06455">
        <ele>752.4</ele>
        <time>2016-07-31T11:42:27Z</time>
      </trkpt>
      <trkpt lat="42.4345" lon="0.06459">
        <ele>752.2</ele>
        <time>2016-07-31T11:42:29Z</time>
      </trkpt>
      <trkpt lat="42.43454" lon="0.0646">
        <ele>750.5</ele>
        <time>2016-07-31T11:42:31Z</time>
      </trkpt>
      <trkpt lat="42.43458" lon="0.06458">
        <ele>748.3</ele>
        <time>2016-07-31T11:42:33Z</time>
      </trkpt>
      <trkpt lat="42.43461" lon="0.06459">
        <ele>747</ele>
        <time>2016-07-31T11:42:36Z</time>
      </trkpt>
      <trkpt lat="42.43464" lon="0.06457">
        <ele>745.4</ele>
        <time>2016-07-31T11:42:39Z</time>
      </trkpt>
      <trkpt lat="42.43468" lon="0.0646">
        <ele>744.3</ele>
        <time>2016-07-31T11:42:41Z</time>
      </trkpt>
      <trkpt lat="42.43473" lon="0.06465">
        <ele>743.8</ele>
        <time>2016-07-31T11:42:43Z</time>
      </trkpt>
      <trkpt lat="42.43475" lon="0.06469">
        <ele>743.5</ele>
        <time>2016-07-31T11:42:44Z</time>
      </trkpt>
      <trkpt lat="42.43479" lon="0.06473">
        <ele>743.2</ele>
        <time>2016-07-31T11:42:45Z</time>
      </trkpt>
      <trkpt lat="42.43481" lon="0.06477">
        <ele>743</ele>
        <time>2016-07-31T11:42:46Z</time>
      </trkpt>
      <trkpt lat="42.43484" lon="0.06481">
        <ele>742.7</ele>
        <time>2016-07-31T11:42:47Z</time>
      </trkpt>
      <trkpt lat="42.43487" lon="0.06486">
        <ele>742.5</ele>
        <time>2016-07-31T11:42:48Z</time>
      </trkpt>
      <trkpt lat="42.4349" lon="0.06492">
        <ele>742</ele>
        <time>2016-07-31T11:42:49Z</time>
      </trkpt>
      <trkpt lat="42.43494" lon="0.06497">
        <ele>741.6</ele>
        <time>2016-07-31T11:42:50Z</time>
      </trkpt>
      <trkpt lat="42.43497" lon="0.06503">
        <ele>741.1</ele>
        <time>2016-07-31T11:42:51Z</time>
      </trkpt>
      <trkpt lat="42.43501" lon="0.06509">
        <ele>740.3</ele>
        <time>2016-07-31T11:42:52Z</time>
      </trkpt>
      <trkpt lat="42.43506" lon="0.06514">
        <ele>739.3</ele>
        <time>2016-07-31T11:42:53Z</time>
      </trkpt>
      <trkpt lat="42.4351" lon="0.06519">
        <ele>738.2</ele>
        <time>2016-07-31T11:42:54Z</time>
      </trkpt>
      <trkpt lat="42.43513" lon="0.06522">
        <ele>737</ele>
        <time>2016-07-31T11:42:55Z</time>
      </trkpt>
      <trkpt lat="42.43516" lon="0.06526">
        <ele>736.2</ele>
        <time>2016-07-31T11:42:56Z</time>
      </trkpt>
      <trkpt lat="42.43518" lon="0.06529">
        <ele>735.7</ele>
        <time>2016-07-31T11:42:57Z</time>
      </trkpt>
      <trkpt lat="42.4352" lon="0.06532">
        <ele>735.3</ele>
        <time>2016-07-31T11:42:58Z</time>
      </trkpt>
      <trkpt lat="42.43523" lon="0.06538">
        <ele>734.3</ele>
        <time>2016-07-31T11:43:00Z</time>
      </trkpt>
      <trkpt lat="42.43525" lon="0.06543">
        <ele>733.9</ele>
        <time>2016-07-31T11:43:01Z</time>
      </trkpt>
      <trkpt lat="42.43527" lon="0.06548">
        <ele>733.4</ele>
        <time>2016-07-31T11:43:02Z</time>
      </trkpt>
      <trkpt lat="42.43529" lon="0.06554">
        <ele>733.2</ele>
        <time>2016-07-31T11:43:03Z</time>
      </trkpt>
      <trkpt lat="42.4353" lon="0.06558">
        <ele>732.9</ele>
        <time>2016-07-31T11:43:04Z</time>
      </trkpt>
      <trkpt lat="42.43532" lon="0.06563">
        <ele>732.6</ele>
        <time>2016-07-31T11:43:05Z</time>
      </trkpt>
      <trkpt lat="42.43532" lon="0.06567">
        <ele>732.6</ele>
        <time>2016-07-31T11:43:06Z</time>
      </trkpt>
      <trkpt lat="42.43533" lon="0.06571">
        <ele>732.6</ele>
        <time>2016-07-31T11:43:07Z</time>
      </trkpt>
      <trkpt lat="42.43534" lon="0.06575">
        <ele>732.6</ele>
        <time>2016-07-31T11:43:08Z</time>
      </trkpt>
      <trkpt lat="42.43535" lon="0.06579">
        <ele>732.4</ele>
        <time>2016-07-31T11:43:09Z</time>
      </trkpt>
      <trkpt lat="42.43536" lon="0.06583">
        <ele>732.2</ele>
        <time>2016-07-31T11:43:10Z</time>
      </trkpt>
      <trkpt lat="42.43538" lon="0.0659">
        <ele>731.6</ele>
        <time>2016-07-31T11:43:12Z</time>
      </trkpt>
      <trkpt lat="42.43539" lon="0.06594">
        <ele>731.3</ele>
        <time>2016-07-31T11:43:13Z</time>
      </trkpt>
      <trkpt lat="42.4354" lon="0.06599">
        <ele>731.3</ele>
        <time>2016-07-31T11:43:14Z</time>
      </trkpt>
      <trkpt lat="42.43541" lon="0.06603">
        <ele>731.5</ele>
        <time>2016-07-31T11:43:15Z</time>
      </trkpt>
      <trkpt lat="42.43541" lon="0.06608">
        <ele>731.9</ele>
        <time>2016-07-31T11:43:16Z</time>
      </trkpt>
      <trkpt lat="42.43541" lon="0.06612">
        <ele>732.2</ele>
        <time>2016-07-31T11:43:17Z</time>
      </trkpt>
      <trkpt lat="42.43541" lon="0.06615">
        <ele>732.6</ele>
        <time>2016-07-31T11:43:18Z</time>
      </trkpt>
      <trkpt lat="42.43541" lon="0.06619">
        <ele>733.1</ele>
        <time>2016-07-31T11:43:19Z</time>
      </trkpt>
      <trkpt lat="42.43541" lon="0.06625">
        <ele>733.2</ele>
        <time>2016-07-31T11:43:21Z</time>
      </trkpt>
      <trkpt lat="42.43542" lon="0.06631">
        <ele>732.7</ele>
        <time>2016-07-31T11:43:23Z</time>
      </trkpt>
      <trkpt lat="42.43543" lon="0.06635">
        <ele>732.4</ele>
        <time>2016-07-31T11:43:25Z</time>
      </trkpt>
      <trkpt lat="42.43544" lon="0.06639">
        <ele>731.6</ele>
        <time>2016-07-31T11:43:28Z</time>
      </trkpt>
      <trkpt lat="42.43546" lon="0.06642">
        <ele>730.6</ele>
        <time>2016-07-31T11:43:37Z</time>
      </trkpt>
      <trkpt lat="42.43544" lon="0.06646">
        <ele>731.8</ele>
        <time>2016-07-31T11:43:43Z</time>
      </trkpt>
      <trkpt lat="42.43548" lon="0.06648">
        <ele>729.7</ele>
        <time>2016-07-31T11:43:50Z</time>
      </trkpt>
      <trkpt lat="42.43551" lon="0.06644">
        <ele>727.4</ele>
        <time>2016-07-31T11:43:52Z</time>
      </trkpt>
      <trkpt lat="42.43553" lon="0.06641">
        <ele>725.8</ele>
        <time>2016-07-31T11:43:54Z</time>
      </trkpt>
      <trkpt lat="42.43555" lon="0.06638">
        <ele>724.4</ele>
        <time>2016-07-31T11:44:03Z</time>
      </trkpt>
      <trkpt lat="42.43555" lon="0.06644">
        <ele>725.1</ele>
        <time>2016-07-31T11:44:09Z</time>
      </trkpt>
      <trkpt lat="42.43555" lon="0.06648">
        <ele>725.1</ele>
        <time>2016-07-31T11:44:10Z</time>
      </trkpt>
      <trkpt lat="42.43555" lon="0.06652">
        <ele>725</ele>
        <time>2016-07-31T11:44:11Z</time>
      </trkpt>
      <trkpt lat="42.43555" lon="0.06657">
        <ele>725.2</ele>
        <time>2016-07-31T11:44:12Z</time>
      </trkpt>
      <trkpt lat="42.43555" lon="0.06661">
        <ele>725.1</ele>
        <time>2016-07-31T11:44:13Z</time>
      </trkpt>
      <trkpt lat="42.43554" lon="0.06668">
        <ele>725.5</ele>
        <time>2016-07-31T11:44:15Z</time>
      </trkpt>
      <trkpt lat="42.43554" lon="0.06672">
        <ele>725.8</ele>
        <time>2016-07-31T11:44:16Z</time>
      </trkpt>
      <trkpt lat="42.43553" lon="0.06679">
        <ele>726.7</ele>
        <time>2016-07-31T11:44:18Z</time>
      </trkpt>
      <trkpt lat="42.43552" lon="0.06682">
        <ele>727.4</ele>
        <time>2016-07-31T11:44:19Z</time>
      </trkpt>
      <trkpt lat="42.43552" lon="0.06687">
        <ele>727.5</ele>
        <time>2016-07-31T11:44:20Z</time>
      </trkpt>
      <trkpt lat="42.43552" lon="0.06692">
        <ele>727.2</ele>
        <time>2016-07-31T11:44:21Z</time>
      </trkpt>
      <trkpt lat="42.43552" lon="0.06698">
        <ele>727.6</ele>
        <time>2016-07-31T11:44:22Z</time>
      </trkpt>
      <trkpt lat="42.43552" lon="0.06703">
        <ele>727.7</ele>
        <time>2016-07-31T11:44:24Z</time>
      </trkpt>
      <trkpt lat="42.43552" lon="0.06707">
        <ele>727.5</ele>
        <time>2016-07-31T11:44:25Z</time>
      </trkpt>
      <trkpt lat="42.43553" lon="0.06712">
        <ele>726.6</ele>
        <time>2016-07-31T11:44:26Z</time>
      </trkpt>
      <trkpt lat="42.43554" lon="0.06716">
        <ele>725.7</ele>
        <time>2016-07-31T11:44:27Z</time>
      </trkpt>
      <trkpt lat="42.43554" lon="0.0672">
        <ele>724.9</ele>
        <time>2016-07-31T11:44:28Z</time>
      </trkpt>
      <trkpt lat="42.43555" lon="0.06724">
        <ele>724</ele>
        <time>2016-07-31T11:44:29Z</time>
      </trkpt>
      <trkpt lat="42.43557" lon="0.0673">
        <ele>722.5</ele>
        <time>2016-07-31T11:44:30Z</time>
      </trkpt>
      <trkpt lat="42.43559" lon="0.06735">
        <ele>720.6</ele>
        <time>2016-07-31T11:44:31Z</time>
      </trkpt>
      <trkpt lat="42.43561" lon="0.06741">
        <ele>718.7</ele>
        <time>2016-07-31T11:44:32Z</time>
      </trkpt>
      <trkpt lat="42.43563" lon="0.06747">
        <ele>716.8</ele>
        <time>2016-07-31T11:44:33Z</time>
      </trkpt>
      <trkpt lat="42.43564" lon="0.06752">
        <ele>715.6</ele>
        <time>2016-07-31T11:44:34Z</time>
      </trkpt>
      <trkpt lat="42.43565" lon="0.06756">
        <ele>714.5</ele>
        <time>2016-07-31T11:44:35Z</time>
      </trkpt>
      <trkpt lat="42.43567" lon="0.0676">
        <ele>713.2</ele>
        <time>2016-07-31T11:44:36Z</time>
      </trkpt>
      <trkpt lat="42.43568" lon="0.06763">
        <ele>711.8</ele>
        <time>2016-07-31T11:44:37Z</time>
      </trkpt>
      <trkpt lat="42.4357" lon="0.06767">
        <ele>710.5</ele>
        <time>2016-07-31T11:44:38Z</time>
      </trkpt>
      <trkpt lat="42.43571" lon="0.06771">
        <ele>709.4</ele>
        <time>2016-07-31T11:44:39Z</time>
      </trkpt>
      <trkpt lat="42.43572" lon="0.06775">
        <ele>708.7</ele>
        <time>2016-07-31T11:44:40Z</time>
      </trkpt>
      <trkpt lat="42.43572" lon="0.0678">
        <ele>707.7</ele>
        <time>2016-07-31T11:44:42Z</time>
      </trkpt>
      <trkpt lat="42.43575" lon="0.06786">
        <ele>705.8</ele>
        <time>2016-07-31T11:44:44Z</time>
      </trkpt>
      <trkpt lat="42.43576" lon="0.0679">
        <ele>704.5</ele>
        <time>2016-07-31T11:44:46Z</time>
      </trkpt>
      <trkpt lat="42.43574" lon="0.06793">
        <ele>705.6</ele>
        <time>2016-07-31T11:44:54Z</time>
      </trkpt>
      <trkpt lat="42.43574" lon="0.06797">
        <ele>705.7</ele>
        <time>2016-07-31T11:44:58Z</time>
      </trkpt>
      <trkpt lat="42.43573" lon="0.06801">
        <ele>706.1</ele>
        <time>2016-07-31T11:45:01Z</time>
      </trkpt>
      <trkpt lat="42.43573" lon="0.06806">
        <ele>705.7</ele>
        <time>2016-07-31T11:45:03Z</time>
      </trkpt>
      <trkpt lat="42.43575" lon="0.06811">
        <ele>704.5</ele>
        <time>2016-07-31T11:45:05Z</time>
      </trkpt>
      <trkpt lat="42.43578" lon="0.06817">
        <ele>702.9</ele>
        <time>2016-07-31T11:45:07Z</time>
      </trkpt>
      <trkpt lat="42.4358" lon="0.06821">
        <ele>701.6</ele>
        <time>2016-07-31T11:45:08Z</time>
      </trkpt>
      <trkpt lat="42.43581" lon="0.06825">
        <ele>700.5</ele>
        <time>2016-07-31T11:45:09Z</time>
      </trkpt>
      <trkpt lat="42.43583" lon="0.06831">
        <ele>699.6</ele>
        <time>2016-07-31T11:45:10Z</time>
      </trkpt>
      <trkpt lat="42.43583" lon="0.06835">
        <ele>699.3</ele>
        <time>2016-07-31T11:45:11Z</time>
      </trkpt>
      <trkpt lat="42.43583" lon="0.06841">
        <ele>699.5</ele>
        <time>2016-07-31T11:45:12Z</time>
      </trkpt>
      <trkpt lat="42.43582" lon="0.06846">
        <ele>699.6</ele>
        <time>2016-07-31T11:45:13Z</time>
      </trkpt>
      <trkpt lat="42.43582" lon="0.06851">
        <ele>699.7</ele>
        <time>2016-07-31T11:45:14Z</time>
      </trkpt>
      <trkpt lat="42.43582" lon="0.06857">
        <ele>699.6</ele>
        <time>2016-07-31T11:45:15Z</time>
      </trkpt>
      <trkpt lat="42.43582" lon="0.06863">
        <ele>699.4</ele>
        <time>2016-07-31T11:45:16Z</time>
      </trkpt>
      <trkpt lat="42.43583" lon="0.06868">
        <ele>698.7</ele>
        <time>2016-07-31T11:45:17Z</time>
      </trkpt>
      <trkpt lat="42.43584" lon="0.06873">
        <ele>698.1</ele>
        <time>2016-07-31T11:45:18Z</time>
      </trkpt>
      <trkpt lat="42.43586" lon="0.06878">
        <ele>697.2</ele>
        <time>2016-07-31T11:45:19Z</time>
      </trkpt>
      <trkpt lat="42.43586" lon="0.06884">
        <ele>696.3</ele>
        <time>2016-07-31T11:45:20Z</time>
      </trkpt>
      <trkpt lat="42.43586" lon="0.0689">
        <ele>695.7</ele>
        <time>2016-07-31T11:45:21Z</time>
      </trkpt>
      <trkpt lat="42.43586" lon="0.06895">
        <ele>695</ele>
        <time>2016-07-31T11:45:22Z</time>
      </trkpt>
      <trkpt lat="42.43586" lon="0.06899">
        <ele>694.8</ele>
        <time>2016-07-31T11:45:23Z</time>
      </trkpt>
      <trkpt lat="42.43585" lon="0.06906">
        <ele>694.5</ele>
        <time>2016-07-31T11:45:25Z</time>
      </trkpt>
      <trkpt lat="42.43585" lon="0.0691">
        <ele>694</ele>
        <time>2016-07-31T11:45:26Z</time>
      </trkpt>
      <trkpt lat="42.43586" lon="0.06914">
        <ele>693.2</ele>
        <time>2016-07-31T11:45:27Z</time>
      </trkpt>
      <trkpt lat="42.43588" lon="0.06918">
        <ele>692</ele>
        <time>2016-07-31T11:45:28Z</time>
      </trkpt>
      <trkpt lat="42.43591" lon="0.06924">
        <ele>690.5</ele>
        <time>2016-07-31T11:45:29Z</time>
      </trkpt>
      <trkpt lat="42.43593" lon="0.0693">
        <ele>689.2</ele>
        <time>2016-07-31T11:45:30Z</time>
      </trkpt>
      <trkpt lat="42.43596" lon="0.06937">
        <ele>687.8</ele>
        <time>2016-07-31T11:45:31Z</time>
      </trkpt>
      <trkpt lat="42.43598" lon="0.06945">
        <ele>686.6</ele>
        <time>2016-07-31T11:45:32Z</time>
      </trkpt>
      <trkpt lat="42.43599" lon="0.06953">
        <ele>685.5</ele>
        <time>2016-07-31T11:45:33Z</time>
      </trkpt>
      <trkpt lat="42.436" lon="0.0696">
        <ele>684.7</ele>
        <time>2016-07-31T11:45:34Z</time>
      </trkpt>
      <trkpt lat="42.436" lon="0.06965">
        <ele>683.7</ele>
        <time>2016-07-31T11:45:35Z</time>
      </trkpt>
      <trkpt lat="42.436" lon="0.06971">
        <ele>682.8</ele>
        <time>2016-07-31T11:45:36Z</time>
      </trkpt>
      <trkpt lat="42.43599" lon="0.06976">
        <ele>682.1</ele>
        <time>2016-07-31T11:45:37Z</time>
      </trkpt>
      <trkpt lat="42.43599" lon="0.06982">
        <ele>681.2</ele>
        <time>2016-07-31T11:45:38Z</time>
      </trkpt>
      <trkpt lat="42.43598" lon="0.06986">
        <ele>680.5</ele>
        <time>2016-07-31T11:45:39Z</time>
      </trkpt>
      <trkpt lat="42.43598" lon="0.06991">
        <ele>679.7</ele>
        <time>2016-07-31T11:45:40Z</time>
      </trkpt>
      <trkpt lat="42.43597" lon="0.06996">
        <ele>679</ele>
        <time>2016-07-31T11:45:41Z</time>
      </trkpt>
      <trkpt lat="42.43595" lon="0.07">
        <ele>678.8</ele>
        <time>2016-07-31T11:45:44Z</time>
      </trkpt>
      <trkpt lat="42.43593" lon="0.07004">
        <ele>678.6</ele>
        <time>2016-07-31T11:45:50Z</time>
      </trkpt>
      <trkpt lat="42.43595" lon="0.07008">
        <ele>677.5</ele>
        <time>2016-07-31T11:45:55Z</time>
      </trkpt>
      <trkpt lat="42.43593" lon="0.07012">
        <ele>677.1</ele>
        <time>2016-07-31T11:45:58Z</time>
      </trkpt>
      <trkpt lat="42.43591" lon="0.07017">
        <ele>676.8</ele>
        <time>2016-07-31T11:46:00Z</time>
      </trkpt>
      <trkpt lat="42.43589" lon="0.07022">
        <ele>676</ele>
        <time>2016-07-31T11:46:02Z</time>
      </trkpt>
      <trkpt lat="42.43591" lon="0.07026">
        <ele>674.9</ele>
        <time>2016-07-31T11:46:04Z</time>
      </trkpt>
      <trkpt lat="42.43594" lon="0.07028">
        <ele>674</ele>
        <time>2016-07-31T11:46:06Z</time>
      </trkpt>
      <trkpt lat="42.43597" lon="0.07032">
        <ele>672.9</ele>
        <time>2016-07-31T11:46:08Z</time>
      </trkpt>
      <trkpt lat="42.43596" lon="0.07039">
        <ele>671.8</ele>
        <time>2016-07-31T11:46:10Z</time>
      </trkpt>
      <trkpt lat="42.43594" lon="0.07043">
        <ele>671.2</ele>
        <time>2016-07-31T11:46:11Z</time>
      </trkpt>
      <trkpt lat="42.43593" lon="0.07046">
        <ele>670.5</ele>
        <time>2016-07-31T11:46:12Z</time>
      </trkpt>
      <trkpt lat="42.43592" lon="0.07051">
        <ele>669.4</ele>
        <time>2016-07-31T11:46:14Z</time>
      </trkpt>
      <trkpt lat="42.43595" lon="0.0705">
        <ele>669.2</ele>
        <time>2016-07-31T11:46:18Z</time>
      </trkpt>
      <trkpt lat="42.43597" lon="0.07056">
        <ele>667.2</ele>
        <time>2016-07-31T11:46:21Z</time>
      </trkpt>
      <trkpt lat="42.43597" lon="0.07059">
        <ele>666.1</ele>
        <time>2016-07-31T11:46:22Z</time>
      </trkpt>
      <trkpt lat="42.43596" lon="0.07064">
        <ele>665</ele>
        <time>2016-07-31T11:46:23Z</time>
      </trkpt>
      <trkpt lat="42.43594" lon="0.07069">
        <ele>663.9</ele>
        <time>2016-07-31T11:46:24Z</time>
      </trkpt>
      <trkpt lat="42.43593" lon="0.07073">
        <ele>663</ele>
        <time>2016-07-31T11:46:25Z</time>
      </trkpt>
      <trkpt lat="42.43591" lon="0.07077">
        <ele>662.3</ele>
        <time>2016-07-31T11:46:26Z</time>
      </trkpt>
      <trkpt lat="42.43588" lon="0.07083">
        <ele>660.8</ele>
        <time>2016-07-31T11:46:28Z</time>
      </trkpt>
      <trkpt lat="42.43587" lon="0.07086">
        <ele>660.1</ele>
        <time>2016-07-31T11:46:29Z</time>
      </trkpt>
      <trkpt lat="42.43586" lon="0.0709">
        <ele>659.3</ele>
        <time>2016-07-31T11:46:30Z</time>
      </trkpt>
      <trkpt lat="42.43584" lon="0.07094">
        <ele>658.2</ele>
        <time>2016-07-31T11:46:31Z</time>
      </trkpt>
      <trkpt lat="42.43583" lon="0.071">
        <ele>656.8</ele>
        <time>2016-07-31T11:46:32Z</time>
      </trkpt>
      <trkpt lat="42.43582" lon="0.07105">
        <ele>655.6</ele>
        <time>2016-07-31T11:46:33Z</time>
      </trkpt>
      <trkpt lat="42.43581" lon="0.0711">
        <ele>654.1</ele>
        <time>2016-07-31T11:46:35Z</time>
      </trkpt>
      <trkpt lat="42.43581" lon="0.07115">
        <ele>652.7</ele>
        <time>2016-07-31T11:46:37Z</time>
      </trkpt>
      <trkpt lat="42.43584" lon="0.07116">
        <ele>652.1</ele>
        <time>2016-07-31T11:46:40Z</time>
      </trkpt>
      <trkpt lat="42.43588" lon="0.07112">
        <ele>652.6</ele>
        <time>2016-07-31T11:46:42Z</time>
      </trkpt>
      <trkpt lat="42.43591" lon="0.07112">
        <ele>652.3</ele>
        <time>2016-07-31T11:46:44Z</time>
      </trkpt>
      <trkpt lat="42.43593" lon="0.07118">
        <ele>650.3</ele>
        <time>2016-07-31T11:46:46Z</time>
      </trkpt>
      <trkpt lat="42.43593" lon="0.07122">
        <ele>649.1</ele>
        <time>2016-07-31T11:46:48Z</time>
      </trkpt>
      <trkpt lat="42.43595" lon="0.07125">
        <ele>647.9</ele>
        <time>2016-07-31T11:46:50Z</time>
      </trkpt>
      <trkpt lat="42.43599" lon="0.07127">
        <ele>647.1</ele>
        <time>2016-07-31T11:46:52Z</time>
      </trkpt>
      <trkpt lat="42.43602" lon="0.07128">
        <ele>646.6</ele>
        <time>2016-07-31T11:46:54Z</time>
      </trkpt>
      <trkpt lat="42.43605" lon="0.07127">
        <ele>646.3</ele>
        <time>2016-07-31T11:46:56Z</time>
      </trkpt>
      <trkpt lat="42.43608" lon="0.07126">
        <ele>646</ele>
        <time>2016-07-31T11:46:58Z</time>
      </trkpt>
      <trkpt lat="42.43608" lon="0.07132">
        <ele>645.2</ele>
        <time>2016-07-31T11:47:01Z</time>
      </trkpt>
      <trkpt lat="42.43607" lon="0.07136">
        <ele>644.7</ele>
        <time>2016-07-31T11:47:03Z</time>
      </trkpt>
      <trkpt lat="42.43607" lon="0.0714">
        <ele>644.1</ele>
        <time>2016-07-31T11:47:05Z</time>
      </trkpt>
      <trkpt lat="42.43605" lon="0.07146">
        <ele>643.5</ele>
        <time>2016-07-31T11:47:07Z</time>
      </trkpt>
      <trkpt lat="42.43604" lon="0.07153">
        <ele>642.7</ele>
        <time>2016-07-31T11:47:09Z</time>
      </trkpt>
      <trkpt lat="42.43604" lon="0.07157">
        <ele>642.1</ele>
        <time>2016-07-31T11:47:10Z</time>
      </trkpt>
      <trkpt lat="42.43604" lon="0.07161">
        <ele>641.4</ele>
        <time>2016-07-31T11:47:11Z</time>
      </trkpt>
      <trkpt lat="42.43604" lon="0.07165">
        <ele>640.7</ele>
        <time>2016-07-31T11:47:12Z</time>
      </trkpt>
      <trkpt lat="42.43605" lon="0.07169">
        <ele>640</ele>
        <time>2016-07-31T11:47:13Z</time>
      </trkpt>
      <trkpt lat="42.43606" lon="0.07173">
        <ele>639.4</ele>
        <time>2016-07-31T11:47:14Z</time>
      </trkpt>
      <trkpt lat="42.43607" lon="0.07176">
        <ele>638.7</ele>
        <time>2016-07-31T11:47:15Z</time>
      </trkpt>
      <trkpt lat="42.43608" lon="0.07182">
        <ele>637.8</ele>
        <time>2016-07-31T11:47:17Z</time>
      </trkpt>
      <trkpt lat="42.4361" lon="0.07185">
        <ele>637.1</ele>
        <time>2016-07-31T11:47:20Z</time>
      </trkpt>
      <trkpt lat="42.43613" lon="0.07183">
        <ele>637.1</ele>
        <time>2016-07-31T11:47:24Z</time>
      </trkpt>
      <trkpt lat="42.43615" lon="0.0718">
        <ele>637.3</ele>
        <time>2016-07-31T11:47:28Z</time>
      </trkpt>
      <trkpt lat="42.43615" lon="0.07176">
        <ele>637.8</ele>
        <time>2016-07-31T11:47:32Z</time>
      </trkpt>
      <trkpt lat="42.43616" lon="0.07172">
        <ele>638.3</ele>
        <time>2016-07-31T11:47:37Z</time>
      </trkpt>
      <trkpt lat="42.43618" lon="0.07167">
        <ele>638.8</ele>
        <time>2016-07-31T11:47:41Z</time>
      </trkpt>
      <trkpt lat="42.43621" lon="0.07164">
        <ele>639</ele>
        <time>2016-07-31T11:47:43Z</time>
      </trkpt>
      <trkpt lat="42.43624" lon="0.0716">
        <ele>639.1</ele>
        <time>2016-07-31T11:47:45Z</time>
      </trkpt>
      <trkpt lat="42.43626" lon="0.07157">
        <ele>638.9</ele>
        <time>2016-07-31T11:47:47Z</time>
      </trkpt>
      <trkpt lat="42.43629" lon="0.07154">
        <ele>637.8</ele>
        <time>2016-07-31T11:47:49Z</time>
      </trkpt>
      <trkpt lat="42.43632" lon="0.07153">
        <ele>636.3</ele>
        <time>2016-07-31T11:47:51Z</time>
      </trkpt>
      <trkpt lat="42.43636" lon="0.07157">
        <ele>634.2</ele>
        <time>2016-07-31T11:47:53Z</time>
      </trkpt>
      <trkpt lat="42.43636" lon="0.07163">
        <ele>633.3</ele>
        <time>2016-07-31T11:47:55Z</time>
      </trkpt>
      <trkpt lat="42.43635" lon="0.07167">
        <ele>633.4</ele>
        <time>2016-07-31T11:47:56Z</time>
      </trkpt>
      <trkpt lat="42.43633" lon="0.07171">
        <ele>633.6</ele>
        <time>2016-07-31T11:47:57Z</time>
      </trkpt>
      <trkpt lat="42.43632" lon="0.07175">
        <ele>633.7</ele>
        <time>2016-07-31T11:47:58Z</time>
      </trkpt>
      <trkpt lat="42.43631" lon="0.07179">
        <ele>633.6</ele>
        <time>2016-07-31T11:47:59Z</time>
      </trkpt>
      <trkpt lat="42.43629" lon="0.07183">
        <ele>633.6</ele>
        <time>2016-07-31T11:48:00Z</time>
      </trkpt>
      <trkpt lat="42.43628" lon="0.07189">
        <ele>633.4</ele>
        <time>2016-07-31T11:48:02Z</time>
      </trkpt>
      <trkpt lat="42.43627" lon="0.07194">
        <ele>633.1</ele>
        <time>2016-07-31T11:48:04Z</time>
      </trkpt>
      <trkpt lat="42.43625" lon="0.07199">
        <ele>633.3</ele>
        <time>2016-07-31T11:48:06Z</time>
      </trkpt>
      <trkpt lat="42.43625" lon="0.07204">
        <ele>632.5</ele>
        <time>2016-07-31T11:48:09Z</time>
      </trkpt>
      <trkpt lat="42.43627" lon="0.07208">
        <ele>631.4</ele>
        <time>2016-07-31T11:48:11Z</time>
      </trkpt>
      <trkpt lat="42.43628" lon="0.07214">
        <ele>630</ele>
        <time>2016-07-31T11:48:13Z</time>
      </trkpt>
      <trkpt lat="42.4363" lon="0.07218">
        <ele>629.3</ele>
        <time>2016-07-31T11:48:14Z</time>
      </trkpt>
      <trkpt lat="42.43631" lon="0.07221">
        <ele>628.5</ele>
        <time>2016-07-31T11:48:15Z</time>
      </trkpt>
      <trkpt lat="42.43632" lon="0.07225">
        <ele>627.4</ele>
        <time>2016-07-31T11:48:16Z</time>
      </trkpt>
      <trkpt lat="42.43634" lon="0.0723">
        <ele>626.1</ele>
        <time>2016-07-31T11:48:17Z</time>
      </trkpt>
      <trkpt lat="42.43636" lon="0.07235">
        <ele>624.8</ele>
        <time>2016-07-31T11:48:18Z</time>
      </trkpt>
      <trkpt lat="42.43637" lon="0.07241">
        <ele>623.8</ele>
        <time>2016-07-31T11:48:19Z</time>
      </trkpt>
      <trkpt lat="42.43638" lon="0.07248">
        <ele>623</ele>
        <time>2016-07-31T11:48:20Z</time>
      </trkpt>
      <trkpt lat="42.43637" lon="0.07254">
        <ele>622.7</ele>
        <time>2016-07-31T11:48:21Z</time>
      </trkpt>
      <trkpt lat="42.43637" lon="0.07258">
        <ele>622.7</ele>
        <time>2016-07-31T11:48:22Z</time>
      </trkpt>
      <trkpt lat="42.43635" lon="0.07262">
        <ele>623</ele>
        <time>2016-07-31T11:48:24Z</time>
      </trkpt>
      <trkpt lat="42.43635" lon="0.07266">
        <ele>622.8</ele>
        <time>2016-07-31T11:48:26Z</time>
      </trkpt>
      <trkpt lat="42.43637" lon="0.07269">
        <ele>621.6</ele>
        <time>2016-07-31T11:48:38Z</time>
      </trkpt>
      <trkpt lat="42.43636" lon="0.07272">
        <ele>621.7</ele>
        <time>2016-07-31T11:48:41Z</time>
      </trkpt>
      <trkpt lat="42.43635" lon="0.07279">
        <ele>621.6</ele>
        <time>2016-07-31T11:48:43Z</time>
      </trkpt>
      <trkpt lat="42.43635" lon="0.07283">
        <ele>621.3</ele>
        <time>2016-07-31T11:48:44Z</time>
      </trkpt>
      <trkpt lat="42.43635" lon="0.07287">
        <ele>621.1</ele>
        <time>2016-07-31T11:48:45Z</time>
      </trkpt>
      <trkpt lat="42.43634" lon="0.07291">
        <ele>620.9</ele>
        <time>2016-07-31T11:48:46Z</time>
      </trkpt>
      <trkpt lat="42.43634" lon="0.07295">
        <ele>620.7</ele>
        <time>2016-07-31T11:48:47Z</time>
      </trkpt>
      <trkpt lat="42.43633" lon="0.07298">
        <ele>620.4</ele>
        <time>2016-07-31T11:48:48Z</time>
      </trkpt>
      <trkpt lat="42.43633" lon="0.07302">
        <ele>620.1</ele>
        <time>2016-07-31T11:48:49Z</time>
      </trkpt>
      <trkpt lat="42.43633" lon="0.07306">
        <ele>619.7</ele>
        <time>2016-07-31T11:48:50Z</time>
      </trkpt>
      <trkpt lat="42.43633" lon="0.07312">
        <ele>618.9</ele>
        <time>2016-07-31T11:48:52Z</time>
      </trkpt>
      <trkpt lat="42.43634" lon="0.07317">
        <ele>618</ele>
        <time>2016-07-31T11:48:54Z</time>
      </trkpt>
      <trkpt lat="42.43633" lon="0.07322">
        <ele>617.6</ele>
        <time>2016-07-31T11:48:56Z</time>
      </trkpt>
      <trkpt lat="42.43633" lon="0.07327">
        <ele>617.1</ele>
        <time>2016-07-31T11:48:58Z</time>
      </trkpt>
      <trkpt lat="42.43632" lon="0.07331">
        <ele>616.8</ele>
        <time>2016-07-31T11:49:00Z</time>
      </trkpt>
      <trkpt lat="42.43633" lon="0.07335">
        <ele>616.2</ele>
        <time>2016-07-31T11:49:02Z</time>
      </trkpt>
      <trkpt lat="42.43633" lon="0.07339">
        <ele>615.6</ele>
        <time>2016-07-31T11:49:03Z</time>
      </trkpt>
      <trkpt lat="42.43633" lon="0.07344">
        <ele>615.1</ele>
        <time>2016-07-31T11:49:04Z</time>
      </trkpt>
      <trkpt lat="42.43632" lon="0.07348">
        <ele>614.8</ele>
        <time>2016-07-31T11:49:05Z</time>
      </trkpt>
      <trkpt lat="42.43632" lon="0.07354">
        <ele>614.2</ele>
        <time>2016-07-31T11:49:07Z</time>
      </trkpt>
      <trkpt lat="42.43635" lon="0.07353">
        <ele>613.1</ele>
        <time>2016-07-31T11:49:10Z</time>
      </trkpt>
      <trkpt lat="42.43636" lon="0.07347">
        <ele>613.4</ele>
        <time>2016-07-31T11:49:12Z</time>
      </trkpt>
      <trkpt lat="42.43636" lon="0.07342">
        <ele>613.9</ele>
        <time>2016-07-31T11:49:14Z</time>
      </trkpt>
      <trkpt lat="42.43637" lon="0.07338">
        <ele>614.2</ele>
        <time>2016-07-31T11:49:16Z</time>
      </trkpt>
      <trkpt lat="42.43637" lon="0.07334">
        <ele>614.4</ele>
        <time>2016-07-31T11:49:18Z</time>
      </trkpt>
      <trkpt lat="42.43638" lon="0.0733">
        <ele>614.8</ele>
        <time>2016-07-31T11:49:26Z</time>
      </trkpt>
      <trkpt lat="42.43638" lon="0.07325">
        <ele>615</ele>
        <time>2016-07-31T11:49:28Z</time>
      </trkpt>
      <trkpt lat="42.4364" lon="0.07318">
        <ele>615.4</ele>
        <time>2016-07-31T11:49:30Z</time>
      </trkpt>
      <trkpt lat="42.4364" lon="0.07314">
        <ele>615.6</ele>
        <time>2016-07-31T11:49:31Z</time>
      </trkpt>
      <trkpt lat="42.43641" lon="0.07308">
        <ele>615.7</ele>
        <time>2016-07-31T11:49:33Z</time>
      </trkpt>
      <trkpt lat="42.43643" lon="0.07303">
        <ele>615.8</ele>
        <time>2016-07-31T11:49:35Z</time>
      </trkpt>
      <trkpt lat="42.43644" lon="0.07296">
        <ele>615.9</ele>
        <time>2016-07-31T11:49:37Z</time>
      </trkpt>
      <trkpt lat="42.43646" lon="0.0729">
        <ele>615.8</ele>
        <time>2016-07-31T11:49:39Z</time>
      </trkpt>
      <trkpt lat="42.43648" lon="0.07283">
        <ele>615.1</ele>
        <time>2016-07-31T11:49:41Z</time>
      </trkpt>
      <trkpt lat="42.4365" lon="0.07279">
        <ele>614.9</ele>
        <time>2016-07-31T11:49:42Z</time>
      </trkpt>
      <trkpt lat="42.43651" lon="0.07275">
        <ele>614.7</ele>
        <time>2016-07-31T11:49:43Z</time>
      </trkpt>
      <trkpt lat="42.43652" lon="0.0727">
        <ele>614.7</ele>
        <time>2016-07-31T11:49:44Z</time>
      </trkpt>
      <trkpt lat="42.43653" lon="0.07264">
        <ele>614.8</ele>
        <time>2016-07-31T11:49:45Z</time>
      </trkpt>
      <trkpt lat="42.43654" lon="0.07258">
        <ele>615</ele>
        <time>2016-07-31T11:49:46Z</time>
      </trkpt>
      <trkpt lat="42.43654" lon="0.07251">
        <ele>615.4</ele>
        <time>2016-07-31T11:49:47Z</time>
      </trkpt>
      <trkpt lat="42.43655" lon="0.07245">
        <ele>615.8</ele>
        <time>2016-07-31T11:49:48Z</time>
      </trkpt>
      <trkpt lat="42.43655" lon="0.07238">
        <ele>616.5</ele>
        <time>2016-07-31T11:49:49Z</time>
      </trkpt>
      <trkpt lat="42.43654" lon="0.07232">
        <ele>617.3</ele>
        <time>2016-07-31T11:49:50Z</time>
      </trkpt>
      <trkpt lat="42.43653" lon="0.07226">
        <ele>618.3</ele>
        <time>2016-07-31T11:49:51Z</time>
      </trkpt>
      <trkpt lat="42.43652" lon="0.0722">
        <ele>619.1</ele>
        <time>2016-07-31T11:49:52Z</time>
      </trkpt>
      <trkpt lat="42.43653" lon="0.07214">
        <ele>619.5</ele>
        <time>2016-07-31T11:49:53Z</time>
      </trkpt>
      <trkpt lat="42.43654" lon="0.07208">
        <ele>619.7</ele>
        <time>2016-07-31T11:49:54Z</time>
      </trkpt>
      <trkpt lat="42.43655" lon="0.07202">
        <ele>619.6</ele>
        <time>2016-07-31T11:49:55Z</time>
      </trkpt>
      <trkpt lat="42.43658" lon="0.07196">
        <ele>619.3</ele>
        <time>2016-07-31T11:49:56Z</time>
      </trkpt>
      <trkpt lat="42.4366" lon="0.07189">
        <ele>618.9</ele>
        <time>2016-07-31T11:49:57Z</time>
      </trkpt>
      <trkpt lat="42.43663" lon="0.07183">
        <ele>618.4</ele>
        <time>2016-07-31T11:49:58Z</time>
      </trkpt>
      <trkpt lat="42.43665" lon="0.07176">
        <ele>618</ele>
        <time>2016-07-31T11:49:59Z</time>
      </trkpt>
      <trkpt lat="42.43666" lon="0.07169">
        <ele>617.9</ele>
        <time>2016-07-31T11:50:00Z</time>
      </trkpt>
      <trkpt lat="42.43667" lon="0.07162">
        <ele>618.1</ele>
        <time>2016-07-31T11:50:01Z</time>
      </trkpt>
      <trkpt lat="42.43668" lon="0.07155">
        <ele>618.4</ele>
        <time>2016-07-31T11:50:02Z</time>
      </trkpt>
      <trkpt lat="42.43668" lon="0.07148">
        <ele>619</ele>
        <time>2016-07-31T11:50:03Z</time>
      </trkpt>
      <trkpt lat="42.43668" lon="0.07143">
        <ele>619.6</ele>
        <time>2016-07-31T11:50:04Z</time>
      </trkpt>
      <trkpt lat="42.43667" lon="0.07137">
        <ele>620.5</ele>
        <time>2016-07-31T11:50:05Z</time>
      </trkpt>
      <trkpt lat="42.43666" lon="0.07133">
        <ele>621.5</ele>
        <time>2016-07-31T11:50:06Z</time>
      </trkpt>
      <trkpt lat="42.43665" lon="0.07129">
        <ele>622.3</ele>
        <time>2016-07-31T11:50:07Z</time>
      </trkpt>
      <trkpt lat="42.43663" lon="0.07123">
        <ele>624.1</ele>
        <time>2016-07-31T11:50:09Z</time>
      </trkpt>
      <trkpt lat="42.43662" lon="0.07119">
        <ele>625.7</ele>
        <time>2016-07-31T11:50:11Z</time>
      </trkpt>
      <trkpt lat="42.4366" lon="0.07114">
        <ele>627.5</ele>
        <time>2016-07-31T11:50:13Z</time>
      </trkpt>
      <trkpt lat="42.4366" lon="0.07109">
        <ele>628.9</ele>
        <time>2016-07-31T11:50:15Z</time>
      </trkpt>
      <trkpt lat="42.4366" lon="0.07103">
        <ele>629.8</ele>
        <time>2016-07-31T11:50:17Z</time>
      </trkpt>
      <trkpt lat="42.4366" lon="0.07098">
        <ele>630.6</ele>
        <time>2016-07-31T11:50:19Z</time>
      </trkpt>
      <trkpt lat="42.4366" lon="0.07093">
        <ele>631.5</ele>
        <time>2016-07-31T11:50:21Z</time>
      </trkpt>
      <trkpt lat="42.4366" lon="0.07088">
        <ele>632.3</ele>
        <time>2016-07-31T11:50:23Z</time>
      </trkpt>
      <trkpt lat="42.43661" lon="0.07083">
        <ele>632.9</ele>
        <time>2016-07-31T11:50:25Z</time>
      </trkpt>
      <trkpt lat="42.43661" lon="0.07078">
        <ele>633.7</ele>
        <time>2016-07-31T11:50:27Z</time>
      </trkpt>
      <trkpt lat="42.43661" lon="0.07074">
        <ele>634.7</ele>
        <time>2016-07-31T11:50:29Z</time>
      </trkpt>
      <trkpt lat="42.4366" lon="0.07069">
        <ele>636</ele>
        <time>2016-07-31T11:50:31Z</time>
      </trkpt>
      <trkpt lat="42.43659" lon="0.07065">
        <ele>637.4</ele>
        <time>2016-07-31T11:50:33Z</time>
      </trkpt>
      <trkpt lat="42.43659" lon="0.0706">
        <ele>638.7</ele>
        <time>2016-07-31T11:50:35Z</time>
      </trkpt>
      <trkpt lat="42.43659" lon="0.07055">
        <ele>639.5</ele>
        <time>2016-07-31T11:50:37Z</time>
      </trkpt>
      <trkpt lat="42.4366" lon="0.0705">
        <ele>639.7</ele>
        <time>2016-07-31T11:50:39Z</time>
      </trkpt>
      <trkpt lat="42.43661" lon="0.07045">
        <ele>640.2</ele>
        <time>2016-07-31T11:50:41Z</time>
      </trkpt>
      <trkpt lat="42.43661" lon="0.0704">
        <ele>640.4</ele>
        <time>2016-07-31T11:50:43Z</time>
      </trkpt>
      <trkpt lat="42.43662" lon="0.07035">
        <ele>640.4</ele>
        <time>2016-07-31T11:50:45Z</time>
      </trkpt>
      <trkpt lat="42.43663" lon="0.07031">
        <ele>640.2</ele>
        <time>2016-07-31T11:50:47Z</time>
      </trkpt>
      <trkpt lat="42.43665" lon="0.07024">
        <ele>640</ele>
        <time>2016-07-31T11:50:49Z</time>
      </trkpt>
      <trkpt lat="42.43666" lon="0.0702">
        <ele>639.9</ele>
        <time>2016-07-31T11:50:50Z</time>
      </trkpt>
      <trkpt lat="42.43667" lon="0.07014">
        <ele>639.7</ele>
        <time>2016-07-31T11:50:51Z</time>
      </trkpt>
      <trkpt lat="42.43667" lon="0.07009">
        <ele>639.8</ele>
        <time>2016-07-31T11:50:52Z</time>
      </trkpt>
      <trkpt lat="42.43668" lon="0.07004">
        <ele>639.8</ele>
        <time>2016-07-31T11:50:53Z</time>
      </trkpt>
      <trkpt lat="42.43669" lon="0.06999">
        <ele>640</ele>
        <time>2016-07-31T11:50:54Z</time>
      </trkpt>
      <trkpt lat="42.43669" lon="0.06994">
        <ele>640</ele>
        <time>2016-07-31T11:50:55Z</time>
      </trkpt>
      <trkpt lat="42.4367" lon="0.0699">
        <ele>640.1</ele>
        <time>2016-07-31T11:50:56Z</time>
      </trkpt>
      <trkpt lat="42.4367" lon="0.06986">
        <ele>640.4</ele>
        <time>2016-07-31T11:50:57Z</time>
      </trkpt>
      <trkpt lat="42.4367" lon="0.06979">
        <ele>641.1</ele>
        <time>2016-07-31T11:50:59Z</time>
      </trkpt>
      <trkpt lat="42.4367" lon="0.06974">
        <ele>641.9</ele>
        <time>2016-07-31T11:51:01Z</time>
      </trkpt>
      <trkpt lat="42.43669" lon="0.0697">
        <ele>642.7</ele>
        <time>2016-07-31T11:51:03Z</time>
      </trkpt>
      <trkpt lat="42.43669" lon="0.06966">
        <ele>643.1</ele>
        <time>2016-07-31T11:51:05Z</time>
      </trkpt>
      <trkpt lat="42.4367" lon="0.06961">
        <ele>643.4</ele>
        <time>2016-07-31T11:51:07Z</time>
      </trkpt>
      <trkpt lat="42.4367" lon="0.06957">
        <ele>643.3</ele>
        <time>2016-07-31T11:51:09Z</time>
      </trkpt>
      <trkpt lat="42.43672" lon="0.06952">
        <ele>642.5</ele>
        <time>2016-07-31T11:51:11Z</time>
      </trkpt>
      <trkpt lat="42.43673" lon="0.06947">
        <ele>642</ele>
        <time>2016-07-31T11:51:13Z</time>
      </trkpt>
      <trkpt lat="42.43673" lon="0.06944">
        <ele>641.7</ele>
        <time>2016-07-31T11:51:15Z</time>
      </trkpt>
      <trkpt lat="42.43674" lon="0.06938">
        <ele>641.3</ele>
        <time>2016-07-31T11:51:18Z</time>
      </trkpt>
      <trkpt lat="42.43675" lon="0.06934">
        <ele>640.8</ele>
        <time>2016-07-31T11:51:20Z</time>
      </trkpt>
      <trkpt lat="42.43677" lon="0.06926">
        <ele>640.1</ele>
        <time>2016-07-31T11:51:22Z</time>
      </trkpt>
      <trkpt lat="42.43678" lon="0.06921">
        <ele>639.5</ele>
        <time>2016-07-31T11:51:23Z</time>
      </trkpt>
      <trkpt lat="42.43679" lon="0.06916">
        <ele>638.9</ele>
        <time>2016-07-31T11:51:24Z</time>
      </trkpt>
      <trkpt lat="42.43681" lon="0.0691">
        <ele>638</ele>
        <time>2016-07-31T11:51:25Z</time>
      </trkpt>
      <trkpt lat="42.43682" lon="0.06905">
        <ele>637.5</ele>
        <time>2016-07-31T11:51:26Z</time>
      </trkpt>
      <trkpt lat="42.43683" lon="0.06899">
        <ele>636.9</ele>
        <time>2016-07-31T11:51:27Z</time>
      </trkpt>
      <trkpt lat="42.43686" lon="0.06892">
        <ele>635.5</ele>
        <time>2016-07-31T11:51:28Z</time>
      </trkpt>
      <trkpt lat="42.43689" lon="0.06886">
        <ele>633.5</ele>
        <time>2016-07-31T11:51:29Z</time>
      </trkpt>
      <trkpt lat="42.43694" lon="0.06879">
        <ele>630.6</ele>
        <time>2016-07-31T11:51:30Z</time>
      </trkpt>
      <trkpt lat="42.43699" lon="0.06871">
        <ele>627.5</ele>
        <time>2016-07-31T11:51:31Z</time>
      </trkpt>
      <trkpt lat="42.43704" lon="0.06864">
        <ele>624.6</ele>
        <time>2016-07-31T11:51:32Z</time>
      </trkpt>
      <trkpt lat="42.43708" lon="0.06856">
        <ele>622.3</ele>
        <time>2016-07-31T11:51:33Z</time>
      </trkpt>
      <trkpt lat="42.4371" lon="0.06847">
        <ele>621.3</ele>
        <time>2016-07-31T11:51:34Z</time>
      </trkpt>
      <trkpt lat="42.43713" lon="0.06841">
        <ele>620.5</ele>
        <time>2016-07-31T11:51:35Z</time>
      </trkpt>
      <trkpt lat="42.43714" lon="0.06836">
        <ele>620.2</ele>
        <time>2016-07-31T11:51:36Z</time>
      </trkpt>
      <trkpt lat="42.43716" lon="0.06832">
        <ele>619.8</ele>
        <time>2016-07-31T11:51:37Z</time>
      </trkpt>
      <trkpt lat="42.43718" lon="0.06828">
        <ele>619.4</ele>
        <time>2016-07-31T11:51:38Z</time>
      </trkpt>
      <trkpt lat="42.4372" lon="0.06824">
        <ele>618.8</ele>
        <time>2016-07-31T11:51:39Z</time>
      </trkpt>
      <trkpt lat="42.43722" lon="0.0682">
        <ele>618.1</ele>
        <time>2016-07-31T11:51:40Z</time>
      </trkpt>
      <trkpt lat="42.43725" lon="0.06816">
        <ele>617.5</ele>
        <time>2016-07-31T11:51:41Z</time>
      </trkpt>
      <trkpt lat="42.43727" lon="0.06812">
        <ele>616.8</ele>
        <time>2016-07-31T11:51:42Z</time>
      </trkpt>
      <trkpt lat="42.4373" lon="0.06807">
        <ele>616.1</ele>
        <time>2016-07-31T11:51:43Z</time>
      </trkpt>
      <trkpt lat="42.43734" lon="0.06802">
        <ele>615.3</ele>
        <time>2016-07-31T11:51:44Z</time>
      </trkpt>
      <trkpt lat="42.43738" lon="0.06797">
        <ele>614.5</ele>
        <time>2016-07-31T11:51:45Z</time>
      </trkpt>
      <trkpt lat="42.43742" lon="0.06792">
        <ele>613.6</ele>
        <time>2016-07-31T11:51:46Z</time>
      </trkpt>
      <trkpt lat="42.43746" lon="0.06787">
        <ele>612.9</ele>
        <time>2016-07-31T11:51:47Z</time>
      </trkpt>
      <trkpt lat="42.4375" lon="0.06782">
        <ele>612.1</ele>
        <time>2016-07-31T11:51:48Z</time>
      </trkpt>
      <trkpt lat="42.43755" lon="0.06779">
        <ele>611.2</ele>
        <time>2016-07-31T11:51:49Z</time>
      </trkpt>
      <trkpt lat="42.4376" lon="0.06775">
        <ele>610.2</ele>
        <time>2016-07-31T11:51:50Z</time>
      </trkpt>
      <trkpt lat="42.43765" lon="0.06772">
        <ele>609</ele>
        <time>2016-07-31T11:51:51Z</time>
      </trkpt>
      <trkpt lat="42.4377" lon="0.0677">
        <ele>607.7</ele>
        <time>2016-07-31T11:51:52Z</time>
      </trkpt>
      <trkpt lat="42.43775" lon="0.06768">
        <ele>606.3</ele>
        <time>2016-07-31T11:51:53Z</time>
      </trkpt>
      <trkpt lat="42.4378" lon="0.06767">
        <ele>604.8</ele>
        <time>2016-07-31T11:51:54Z</time>
      </trkpt>
      <trkpt lat="42.43786" lon="0.06765">
        <ele>603.4</ele>
        <time>2016-07-31T11:51:55Z</time>
      </trkpt>
      <trkpt lat="42.4379" lon="0.06762">
        <ele>602.4</ele>
        <time>2016-07-31T11:51:56Z</time>
      </trkpt>
      <trkpt lat="42.43794" lon="0.06757">
        <ele>602.3</ele>
        <time>2016-07-31T11:51:57Z</time>
      </trkpt>
      <trkpt lat="42.43797" lon="0.0675">
        <ele>602.9</ele>
        <time>2016-07-31T11:51:58Z</time>
      </trkpt>
      <trkpt lat="42.43798" lon="0.06743">
        <ele>603.7</ele>
        <time>2016-07-31T11:51:59Z</time>
      </trkpt>
      <trkpt lat="42.43799" lon="0.06735">
        <ele>604.6</ele>
        <time>2016-07-31T11:52:00Z</time>
      </trkpt>
      <trkpt lat="42.438" lon="0.06727">
        <ele>605.4</ele>
        <time>2016-07-31T11:52:01Z</time>
      </trkpt>
      <trkpt lat="42.438" lon="0.06721">
        <ele>606.1</ele>
        <time>2016-07-31T11:52:02Z</time>
      </trkpt>
      <trkpt lat="42.43801" lon="0.06716">
        <ele>606.7</ele>
        <time>2016-07-31T11:52:03Z</time>
      </trkpt>
      <trkpt lat="42.43803" lon="0.06711">
        <ele>607</ele>
        <time>2016-07-31T11:52:04Z</time>
      </trkpt>
      <trkpt lat="42.43805" lon="0.06707">
        <ele>607.2</ele>
        <time>2016-07-31T11:52:05Z</time>
      </trkpt>
      <trkpt lat="42.43806" lon="0.06705">
        <ele>607.1</ele>
        <time>2016-07-31T11:52:06Z</time>
      </trkpt>
      <trkpt lat="42.43811" lon="0.06702">
        <ele>606.7</ele>
        <time>2016-07-31T11:52:08Z</time>
      </trkpt>
      <trkpt lat="42.43814" lon="0.06706">
        <ele>605.9</ele>
        <time>2016-07-31T11:52:09Z</time>
      </trkpt>
      <trkpt lat="42.43818" lon="0.06712">
        <ele>604.8</ele>
        <time>2016-07-31T11:52:10Z</time>
      </trkpt>
      <trkpt lat="42.43821" lon="0.06719">
        <ele>603.5</ele>
        <time>2016-07-31T11:52:11Z</time>
      </trkpt>
      <trkpt lat="42.43824" lon="0.06727">
        <ele>602.2</ele>
        <time>2016-07-31T11:52:12Z</time>
      </trkpt>
      <trkpt lat="42.43828" lon="0.06732">
        <ele>601.2</ele>
        <time>2016-07-31T11:52:13Z</time>
      </trkpt>
      <trkpt lat="42.43831" lon="0.06736">
        <ele>600.3</ele>
        <time>2016-07-31T11:52:14Z</time>
      </trkpt>
      <trkpt lat="42.43835" lon="0.06739">
        <ele>599.5</ele>
        <time>2016-07-31T11:52:15Z</time>
      </trkpt>
      <trkpt lat="42.4384" lon="0.0674">
        <ele>598.8</ele>
        <time>2016-07-31T11:52:16Z</time>
      </trkpt>
      <trkpt lat="42.43845" lon="0.0674">
        <ele>598.2</ele>
        <time>2016-07-31T11:52:17Z</time>
      </trkpt>
      <trkpt lat="42.4385" lon="0.06738">
        <ele>597.7</ele>
        <time>2016-07-31T11:52:18Z</time>
      </trkpt>
      <trkpt lat="42.43855" lon="0.06737">
        <ele>597.2</ele>
        <time>2016-07-31T11:52:19Z</time>
      </trkpt>
      <trkpt lat="42.4386" lon="0.06736">
        <ele>596.7</ele>
        <time>2016-07-31T11:52:20Z</time>
      </trkpt>
      <trkpt lat="42.43865" lon="0.06734">
        <ele>596.1</ele>
        <time>2016-07-31T11:52:21Z</time>
      </trkpt>
      <trkpt lat="42.4387" lon="0.06733">
        <ele>595.6</ele>
        <time>2016-07-31T11:52:22Z</time>
      </trkpt>
      <trkpt lat="42.43876" lon="0.06731">
        <ele>595.1</ele>
        <time>2016-07-31T11:52:23Z</time>
      </trkpt>
      <trkpt lat="42.43882" lon="0.06729">
        <ele>595.3</ele>
        <time>2016-07-31T11:52:24Z</time>
      </trkpt>
      <trkpt lat="42.43888" lon="0.06727">
        <ele>595.5</ele>
        <time>2016-07-31T11:52:25Z</time>
      </trkpt>
      <trkpt lat="42.43893" lon="0.06726">
        <ele>595.7</ele>
        <time>2016-07-31T11:52:26Z</time>
      </trkpt>
      <trkpt lat="42.43899" lon="0.06725">
        <ele>595.9</ele>
        <time>2016-07-31T11:52:27Z</time>
      </trkpt>
      <trkpt lat="42.43905" lon="0.06724">
        <ele>596.1</ele>
        <time>2016-07-31T11:52:28Z</time>
      </trkpt>
      <trkpt lat="42.43911" lon="0.06724">
        <ele>596.1</ele>
        <time>2016-07-31T11:52:29Z</time>
      </trkpt>
      <trkpt lat="42.43917" lon="0.06724">
        <ele>596.2</ele>
        <time>2016-07-31T11:52:30Z</time>
      </trkpt>
      <trkpt lat="42.43922" lon="0.06723">
        <ele>596.4</ele>
        <time>2016-07-31T11:52:31Z</time>
      </trkpt>
      <trkpt lat="42.43928" lon="0.06721">
        <ele>596.7</ele>
        <time>2016-07-31T11:52:32Z</time>
      </trkpt>
      <trkpt lat="42.43934" lon="0.06719">
        <ele>597</ele>
        <time>2016-07-31T11:52:33Z</time>
      </trkpt>
      <trkpt lat="42.43939" lon="0.06718">
        <ele>597.2</ele>
        <time>2016-07-31T11:52:34Z</time>
      </trkpt>
      <trkpt lat="42.43944" lon="0.06716">
        <ele>597.6</ele>
        <time>2016-07-31T11:52:35Z</time>
      </trkpt>
      <trkpt lat="42.43949" lon="0.06715">
        <ele>597.9</ele>
        <time>2016-07-31T11:52:36Z</time>
      </trkpt>
      <trkpt lat="42.43954" lon="0.06713">
        <ele>598.3</ele>
        <time>2016-07-31T11:52:37Z</time>
      </trkpt>
      <trkpt lat="42.43959" lon="0.0671">
        <ele>598.7</ele>
        <time>2016-07-31T11:52:38Z</time>
      </trkpt>
      <trkpt lat="42.43964" lon="0.0671">
        <ele>598.6</ele>
        <time>2016-07-31T11:52:39Z</time>
      </trkpt>
      <trkpt lat="42.43968" lon="0.06707">
        <ele>598.7</ele>
        <time>2016-07-31T11:52:40Z</time>
      </trkpt>
      <trkpt lat="42.43973" lon="0.06705">
        <ele>598.9</ele>
        <time>2016-07-31T11:52:41Z</time>
      </trkpt>
      <trkpt lat="42.43976" lon="0.06702">
        <ele>599</ele>
        <time>2016-07-31T11:52:42Z</time>
      </trkpt>
      <trkpt lat="42.4398" lon="0.067">
        <ele>599.1</ele>
        <time>2016-07-31T11:52:43Z</time>
      </trkpt>
      <trkpt lat="42.43983" lon="0.06694">
        <ele>599.6</ele>
        <time>2016-07-31T11:52:44Z</time>
      </trkpt>
      <trkpt lat="42.43987" lon="0.06692">
        <ele>599.7</ele>
        <time>2016-07-31T11:52:45Z</time>
      </trkpt>
      <trkpt lat="42.4399" lon="0.0669">
        <ele>599.7</ele>
        <time>2016-07-31T11:52:46Z</time>
      </trkpt>
      <trkpt lat="42.43993" lon="0.06688">
        <ele>599.9</ele>
        <time>2016-07-31T11:52:47Z</time>
      </trkpt>
      <trkpt lat="42.43995" lon="0.06686">
        <ele>600</ele>
        <time>2016-07-31T11:52:48Z</time>
      </trkpt>
      <trkpt lat="42.43998" lon="0.06684">
        <ele>600.1</ele>
        <time>2016-07-31T11:52:49Z</time>
      </trkpt>
      <trkpt lat="42.44001" lon="0.06683">
        <ele>600</ele>
        <time>2016-07-31T11:52:50Z</time>
      </trkpt>
      <trkpt lat="42.44004" lon="0.06682">
        <ele>600</ele>
        <time>2016-07-31T11:52:51Z</time>
      </trkpt>
      <trkpt lat="42.44009" lon="0.06682">
        <ele>599.8</ele>
        <time>2016-07-31T11:52:53Z</time>
      </trkpt>
      <trkpt lat="42.44012" lon="0.06682">
        <ele>599.7</ele>
        <time>2016-07-31T11:52:54Z</time>
      </trkpt>
      <trkpt lat="42.44015" lon="0.06683">
        <ele>599.4</ele>
        <time>2016-07-31T11:52:55Z</time>
      </trkpt>
      <trkpt lat="42.44019" lon="0.06685">
        <ele>599.2</ele>
        <time>2016-07-31T11:52:56Z</time>
      </trkpt>
      <trkpt lat="42.44023" lon="0.06686">
        <ele>598.9</ele>
        <time>2016-07-31T11:52:57Z</time>
      </trkpt>
      <trkpt lat="42.44029" lon="0.06687">
        <ele>598.6</ele>
        <time>2016-07-31T11:52:58Z</time>
      </trkpt>
      <trkpt lat="42.44035" lon="0.06686">
        <ele>598.4</ele>
        <time>2016-07-31T11:52:59Z</time>
      </trkpt>
      <trkpt lat="42.44042" lon="0.06688">
        <ele>598</ele>
        <time>2016-07-31T11:53:00Z</time>
      </trkpt>
      <trkpt lat="42.44049" lon="0.06688">
        <ele>597.8</ele>
        <time>2016-07-31T11:53:01Z</time>
      </trkpt>
      <trkpt lat="42.44055" lon="0.06687">
        <ele>597.8</ele>
        <time>2016-07-31T11:53:02Z</time>
      </trkpt>
      <trkpt lat="42.4406" lon="0.06687">
        <ele>597.7</ele>
        <time>2016-07-31T11:53:03Z</time>
      </trkpt>
      <trkpt lat="42.44066" lon="0.06687">
        <ele>597.7</ele>
        <time>2016-07-31T11:53:04Z</time>
      </trkpt>
      <trkpt lat="42.4407" lon="0.06687">
        <ele>597.6</ele>
        <time>2016-07-31T11:53:05Z</time>
      </trkpt>
      <trkpt lat="42.44074" lon="0.06686">
        <ele>597.6</ele>
        <time>2016-07-31T11:53:06Z</time>
      </trkpt>
      <trkpt lat="42.44078" lon="0.06685">
        <ele>597.7</ele>
        <time>2016-07-31T11:53:07Z</time>
      </trkpt>
      <trkpt lat="42.44082" lon="0.06685">
        <ele>597.6</ele>
        <time>2016-07-31T11:53:08Z</time>
      </trkpt>
      <trkpt lat="42.44085" lon="0.06685">
        <ele>597.6</ele>
        <time>2016-07-31T11:53:09Z</time>
      </trkpt>
      <trkpt lat="42.44088" lon="0.06686">
        <ele>597.4</ele>
        <time>2016-07-31T11:53:10Z</time>
      </trkpt>
      <trkpt lat="42.44091" lon="0.06686">
        <ele>597.4</ele>
        <time>2016-07-31T11:53:11Z</time>
      </trkpt>
      <trkpt lat="42.44094" lon="0.06686">
        <ele>597.4</ele>
        <time>2016-07-31T11:53:12Z</time>
      </trkpt>
      <trkpt lat="42.44097" lon="0.06685">
        <ele>597.4</ele>
        <time>2016-07-31T11:53:13Z</time>
      </trkpt>
      <trkpt lat="42.44101" lon="0.06685">
        <ele>597.3</ele>
        <time>2016-07-31T11:53:14Z</time>
      </trkpt>
      <trkpt lat="42.44104" lon="0.06686">
        <ele>597.2</ele>
        <time>2016-07-31T11:53:15Z</time>
      </trkpt>
      <trkpt lat="42.44108" lon="0.06686">
        <ele>597.1</ele>
        <time>2016-07-31T11:53:16Z</time>
      </trkpt>
      <trkpt lat="42.44111" lon="0.06687">
        <ele>597</ele>
        <time>2016-07-31T11:53:17Z</time>
      </trkpt>
      <trkpt lat="42.44114" lon="0.06687">
        <ele>597</ele>
        <time>2016-07-31T11:53:18Z</time>
      </trkpt>
      <trkpt lat="42.44118" lon="0.06687">
        <ele>596.9</ele>
        <time>2016-07-31T11:53:19Z</time>
      </trkpt>
      <trkpt lat="42.44122" lon="0.06687">
        <ele>596.8</ele>
        <time>2016-07-31T11:53:20Z</time>
      </trkpt>
      <trkpt lat="42.44125" lon="0.06687">
        <ele>596.8</ele>
        <time>2016-07-31T11:53:21Z</time>
      </trkpt>
      <trkpt lat="42.44129" lon="0.06687">
        <ele>596.8</ele>
        <time>2016-07-31T11:53:22Z</time>
      </trkpt>
      <trkpt lat="42.44132" lon="0.06686">
        <ele>596.9</ele>
        <time>2016-07-31T11:53:23Z</time>
      </trkpt>
      <trkpt lat="42.44136" lon="0.06685">
        <ele>597</ele>
        <time>2016-07-31T11:53:24Z</time>
      </trkpt>
      <trkpt lat="42.44139" lon="0.06684">
        <ele>597</ele>
        <time>2016-07-31T11:53:25Z</time>
      </trkpt>
      <trkpt lat="42.44143" lon="0.06683">
        <ele>597.1</ele>
        <time>2016-07-31T11:53:26Z</time>
      </trkpt>
      <trkpt lat="42.44146" lon="0.06683">
        <ele>597.2</ele>
        <time>2016-07-31T11:53:27Z</time>
      </trkpt>
      <trkpt lat="42.44149" lon="0.06682">
        <ele>597.2</ele>
        <time>2016-07-31T11:53:28Z</time>
      </trkpt>
      <trkpt lat="42.44153" lon="0.06682">
        <ele>597.3</ele>
        <time>2016-07-31T11:53:29Z</time>
      </trkpt>
      <trkpt lat="42.44156" lon="0.06681">
        <ele>597.3</ele>
        <time>2016-07-31T11:53:30Z</time>
      </trkpt>
      <trkpt lat="42.4416" lon="0.06681">
        <ele>597.3</ele>
        <time>2016-07-31T11:53:31Z</time>
      </trkpt>
      <trkpt lat="42.44164" lon="0.0668">
        <ele>597.3</ele>
        <time>2016-07-31T11:53:32Z</time>
      </trkpt>
      <trkpt lat="42.44169" lon="0.0668">
        <ele>597.4</ele>
        <time>2016-07-31T11:53:33Z</time>
      </trkpt>
      <trkpt lat="42.44174" lon="0.06678">
        <ele>597.5</ele>
        <time>2016-07-31T11:53:34Z</time>
      </trkpt>
      <trkpt lat="42.44178" lon="0.06676">
        <ele>597.6</ele>
        <time>2016-07-31T11:53:35Z</time>
      </trkpt>
      <trkpt lat="42.44183" lon="0.06675">
        <ele>597.7</ele>
        <time>2016-07-31T11:53:36Z</time>
      </trkpt>
      <trkpt lat="42.44187" lon="0.06674">
        <ele>597.7</ele>
        <time>2016-07-31T11:53:37Z</time>
      </trkpt>
      <trkpt lat="42.44192" lon="0.06673">
        <ele>597.7</ele>
        <time>2016-07-31T11:53:38Z</time>
      </trkpt>
      <trkpt lat="42.44197" lon="0.06672">
        <ele>597.8</ele>
        <time>2016-07-31T11:53:39Z</time>
      </trkpt>
      <trkpt lat="42.44202" lon="0.06672">
        <ele>597.8</ele>
        <time>2016-07-31T11:53:40Z</time>
      </trkpt>
      <trkpt lat="42.44207" lon="0.06671">
        <ele>597.8</ele>
        <time>2016-07-31T11:53:41Z</time>
      </trkpt>
      <trkpt lat="42.44212" lon="0.06669">
        <ele>597.9</ele>
        <time>2016-07-31T11:53:42Z</time>
      </trkpt>
      <trkpt lat="42.44217" lon="0.06667">
        <ele>598</ele>
        <time>2016-07-31T11:53:43Z</time>
      </trkpt>
      <trkpt lat="42.44221" lon="0.06664">
        <ele>598.1</ele>
        <time>2016-07-31T11:53:44Z</time>
      </trkpt>
      <trkpt lat="42.44225" lon="0.0666">
        <ele>598.3</ele>
        <time>2016-07-31T11:53:45Z</time>
      </trkpt>
      <trkpt lat="42.44228" lon="0.06657">
        <ele>598.4</ele>
        <time>2016-07-31T11:53:46Z</time>
      </trkpt>
      <trkpt lat="42.44232" lon="0.06654">
        <ele>598.6</ele>
        <time>2016-07-31T11:53:47Z</time>
      </trkpt>
      <trkpt lat="42.44235" lon="0.0665">
        <ele>598.8</ele>
        <time>2016-07-31T11:53:48Z</time>
      </trkpt>
      <trkpt lat="42.44239" lon="0.06646">
        <ele>599.1</ele>
        <time>2016-07-31T11:53:49Z</time>
      </trkpt>
      <trkpt lat="42.44242" lon="0.06643">
        <ele>599.3</ele>
        <time>2016-07-31T11:53:50Z</time>
      </trkpt>
      <trkpt lat="42.44246" lon="0.06639">
        <ele>599.6</ele>
        <time>2016-07-31T11:53:51Z</time>
      </trkpt>
      <trkpt lat="42.44249" lon="0.06635">
        <ele>599.8</ele>
        <time>2016-07-31T11:53:52Z</time>
      </trkpt>
      <trkpt lat="42.44253" lon="0.06632">
        <ele>600.1</ele>
        <time>2016-07-31T11:53:53Z</time>
      </trkpt>
      <trkpt lat="42.44256" lon="0.06628">
        <ele>600.4</ele>
        <time>2016-07-31T11:53:54Z</time>
      </trkpt>
      <trkpt lat="42.44259" lon="0.06624">
        <ele>600.7</ele>
        <time>2016-07-31T11:53:55Z</time>
      </trkpt>
      <trkpt lat="42.44263" lon="0.0662">
        <ele>601.1</ele>
        <time>2016-07-31T11:53:56Z</time>
      </trkpt>
      <trkpt lat="42.44267" lon="0.06616">
        <ele>601.5</ele>
        <time>2016-07-31T11:53:57Z</time>
      </trkpt>
      <trkpt lat="42.4427" lon="0.06613">
        <ele>601.8</ele>
        <time>2016-07-31T11:53:58Z</time>
      </trkpt>
      <trkpt lat="42.44274" lon="0.06609">
        <ele>602.2</ele>
        <time>2016-07-31T11:53:59Z</time>
      </trkpt>
      <trkpt lat="42.44278" lon="0.06606">
        <ele>602.5</ele>
        <time>2016-07-31T11:54:00Z</time>
      </trkpt>
      <trkpt lat="42.44282" lon="0.06602">
        <ele>602.9</ele>
        <time>2016-07-31T11:54:01Z</time>
      </trkpt>
      <trkpt lat="42.44286" lon="0.06598">
        <ele>603.2</ele>
        <time>2016-07-31T11:54:02Z</time>
      </trkpt>
      <trkpt lat="42.4429" lon="0.06594">
        <ele>603.6</ele>
        <time>2016-07-31T11:54:03Z</time>
      </trkpt>
      <trkpt lat="42.44294" lon="0.0659">
        <ele>603.8</ele>
        <time>2016-07-31T11:54:04Z</time>
      </trkpt>
      <trkpt lat="42.44299" lon="0.06586">
        <ele>603.8</ele>
        <time>2016-07-31T11:54:05Z</time>
      </trkpt>
      <trkpt lat="42.44304" lon="0.06581">
        <ele>603.9</ele>
        <time>2016-07-31T11:54:06Z</time>
      </trkpt>
      <trkpt lat="42.44308" lon="0.06577">
        <ele>603.9</ele>
        <time>2016-07-31T11:54:07Z</time>
      </trkpt>
      <trkpt lat="42.44313" lon="0.06573">
        <ele>604</ele>
        <time>2016-07-31T11:54:08Z</time>
      </trkpt>
      <trkpt lat="42.44317" lon="0.06569">
        <ele>604</ele>
        <time>2016-07-31T11:54:09Z</time>
      </trkpt>
      <trkpt lat="42.4432" lon="0.06567">
        <ele>603.9</ele>
        <time>2016-07-31T11:54:10Z</time>
      </trkpt>
      <trkpt lat="42.44323" lon="0.06565">
        <ele>603.8</ele>
        <time>2016-07-31T11:54:11Z</time>
      </trkpt>
      <trkpt lat="42.44327" lon="0.06565">
        <ele>603.7</ele>
        <time>2016-07-31T11:54:12Z</time>
      </trkpt>
      <trkpt lat="42.4433" lon="0.06565">
        <ele>603.5</ele>
        <time>2016-07-31T11:54:13Z</time>
      </trkpt>
      <trkpt lat="42.44334" lon="0.06565">
        <ele>603.2</ele>
        <time>2016-07-31T11:54:15Z</time>
      </trkpt>
      <trkpt lat="42.44337" lon="0.06567">
        <ele>602.8</ele>
        <time>2016-07-31T11:54:29Z</time>
      </trkpt>
    </trkseg>
  </trk>
  <trk>
    <name><![CDATA[Ainsa 19]]></name>
    <extensions>
      <line xmlns="http://www.topografix.com/GPX/gpx_style/0/2">
        <color>008888</color>
        <width>4</width>
      </line>
    </extensions>
    <trkseg>
      <trkpt lat="42.34519" lon="0.16153">
        <ele>572.2</ele>
        <time>2015-09-22T09:17:49Z</time>
      </trkpt>
      <trkpt lat="42.3451" lon="0.16155">
        <ele>571</ele>
        <time>2015-09-22T09:17:52Z</time>
      </trkpt>
      <trkpt lat="42.34514" lon="0.16156">
        <ele>571.4</ele>
        <time>2015-09-22T09:17:55Z</time>
      </trkpt>
      <trkpt lat="42.34516" lon="0.16153">
        <ele>571.8</ele>
        <time>2015-09-22T09:18:00Z</time>
      </trkpt>
      <trkpt lat="42.34518" lon="0.1615">
        <ele>572.2</ele>
        <time>2015-09-22T09:21:23Z</time>
      </trkpt>
      <trkpt lat="42.34521" lon="0.16146">
        <ele>572.7</ele>
        <time>2015-09-22T09:21:25Z</time>
      </trkpt>
      <trkpt lat="42.34521" lon="0.1614">
        <ele>572.9</ele>
        <time>2015-09-22T09:21:27Z</time>
      </trkpt>
      <trkpt lat="42.34518" lon="0.16135">
        <ele>572.7</ele>
        <time>2015-09-22T09:21:29Z</time>
      </trkpt>
      <trkpt lat="42.34516" lon="0.16132">
        <ele>572.6</ele>
        <time>2015-09-22T09:21:30Z</time>
      </trkpt>
      <trkpt lat="42.34514" lon="0.16129">
        <ele>572.6</ele>
        <time>2015-09-22T09:21:31Z</time>
      </trkpt>
      <trkpt lat="42.34511" lon="0.16124">
        <ele>572.3</ele>
        <time>2015-09-22T09:21:33Z</time>
      </trkpt>
      <trkpt lat="42.3451" lon="0.16118">
        <ele>572.2</ele>
        <time>2015-09-22T09:21:35Z</time>
      </trkpt>
      <trkpt lat="42.34511" lon="0.16114">
        <ele>572.3</ele>
        <time>2015-09-22T09:21:36Z</time>
      </trkpt>
      <trkpt lat="42.34513" lon="0.16111">
        <ele>572.4</ele>
        <time>2015-09-22T09:21:37Z</time>
      </trkpt>
      <trkpt lat="42.34515" lon="0.16108">
        <ele>572.7</ele>
        <time>2015-09-22T09:21:38Z</time>
      </trkpt>
      <trkpt lat="42.34516" lon="0.16104">
        <ele>572.9</ele>
        <time>2015-09-22T09:21:39Z</time>
      </trkpt>
      <trkpt lat="42.34519" lon="0.16102">
        <ele>573.2</ele>
        <time>2015-09-22T09:21:40Z</time>
      </trkpt>
      <trkpt lat="42.34521" lon="0.16099">
        <ele>573.5</ele>
        <time>2015-09-22T09:21:41Z</time>
      </trkpt>
      <trkpt lat="42.34524" lon="0.16097">
        <ele>573.9</ele>
        <time>2015-09-22T09:21:42Z</time>
      </trkpt>
      <trkpt lat="42.34526" lon="0.16095">
        <ele>574.2</ele>
        <time>2015-09-22T09:21:43Z</time>
      </trkpt>
      <trkpt lat="42.34529" lon="0.16092">
        <ele>574.6</ele>
        <time>2015-09-22T09:21:44Z</time>
      </trkpt>
      <trkpt lat="42.34531" lon="0.1609">
        <ele>574.9</ele>
        <time>2015-09-22T09:21:45Z</time>
      </trkpt>
      <trkpt lat="42.34533" lon="0.16087">
        <ele>575.2</ele>
        <time>2015-09-22T09:21:46Z</time>
      </trkpt>
      <trkpt lat="42.34535" lon="0.16084">
        <ele>575.6</ele>
        <time>2015-09-22T09:21:47Z</time>
      </trkpt>
      <trkpt lat="42.34537" lon="0.16082">
        <ele>575.9</ele>
        <time>2015-09-22T09:21:48Z</time>
      </trkpt>
      <trkpt lat="42.3454" lon="0.16079">
        <ele>576.3</ele>
        <time>2015-09-22T09:21:49Z</time>
      </trkpt>
      <trkpt lat="42.34542" lon="0.16076">
        <ele>576.6</ele>
        <time>2015-09-22T09:21:50Z</time>
      </trkpt>
      <trkpt lat="42.34544" lon="0.16073">
        <ele>576.6</ele>
        <time>2015-09-22T09:21:51Z</time>
      </trkpt>
      <trkpt lat="42.34546" lon="0.16071">
        <ele>576.7</ele>
        <time>2015-09-22T09:21:52Z</time>
      </trkpt>
      <trkpt lat="42.34547" lon="0.16068">
        <ele>576.7</ele>
        <time>2015-09-22T09:21:53Z</time>
      </trkpt>
      <trkpt lat="42.34548" lon="0.16064">
        <ele>576.8</ele>
        <time>2015-09-22T09:21:54Z</time>
      </trkpt>
      <trkpt lat="42.34549" lon="0.16061">
        <ele>576.8</ele>
        <time>2015-09-22T09:21:55Z</time>
      </trkpt>
      <trkpt lat="42.34551" lon="0.16058">
        <ele>576.9</ele>
        <time>2015-09-22T09:21:56Z</time>
      </trkpt>
      <trkpt lat="42.34553" lon="0.16055">
        <ele>576.9</ele>
        <time>2015-09-22T09:21:57Z</time>
      </trkpt>
      <trkpt lat="42.34555" lon="0.16053">
        <ele>577</ele>
        <time>2015-09-22T09:21:58Z</time>
      </trkpt>
      <trkpt lat="42.34557" lon="0.1605">
        <ele>577.1</ele>
        <time>2015-09-22T09:21:59Z</time>
      </trkpt>
      <trkpt lat="42.34559" lon="0.16047">
        <ele>577.1</ele>
        <time>2015-09-22T09:22:00Z</time>
      </trkpt>
      <trkpt lat="42.34563" lon="0.16042">
        <ele>577.2</ele>
        <time>2015-09-22T09:22:02Z</time>
      </trkpt>
      <trkpt lat="42.34565" lon="0.16037">
        <ele>577.2</ele>
        <time>2015-09-22T09:22:04Z</time>
      </trkpt>
      <trkpt lat="42.34568" lon="0.16032">
        <ele>577.1</ele>
        <time>2015-09-22T09:22:06Z</time>
      </trkpt>
      <trkpt lat="42.34571" lon="0.16027">
        <ele>577</ele>
        <time>2015-09-22T09:22:08Z</time>
      </trkpt>
      <trkpt lat="42.34573" lon="0.16024">
        <ele>577</ele>
        <time>2015-09-22T09:22:10Z</time>
      </trkpt>
      <trkpt lat="42.34577" lon="0.16025">
        <ele>577.1</ele>
        <time>2015-09-22T09:22:23Z</time>
      </trkpt>
      <trkpt lat="42.34579" lon="0.16021">
        <ele>577</ele>
        <time>2015-09-22T09:22:25Z</time>
      </trkpt>
      <trkpt lat="42.34581" lon="0.16015">
        <ele>577</ele>
        <time>2015-09-22T09:22:27Z</time>
      </trkpt>
      <trkpt lat="42.34582" lon="0.16012">
        <ele>576.9</ele>
        <time>2015-09-22T09:22:28Z</time>
      </trkpt>
      <trkpt lat="42.34582" lon="0.16008">
        <ele>576.9</ele>
        <time>2015-09-22T09:22:29Z</time>
      </trkpt>
      <trkpt lat="42.34583" lon="0.16005">
        <ele>576.8</ele>
        <time>2015-09-22T09:22:30Z</time>
      </trkpt>
      <trkpt lat="42.34583" lon="0.16001">
        <ele>576.8</ele>
        <time>2015-09-22T09:22:31Z</time>
      </trkpt>
      <trkpt lat="42.34583" lon="0.15994">
        <ele>576.6</ele>
        <time>2015-09-22T09:22:33Z</time>
      </trkpt>
      <trkpt lat="42.34582" lon="0.15987">
        <ele>576.5</ele>
        <time>2015-09-22T09:22:35Z</time>
      </trkpt>
      <trkpt lat="42.34581" lon="0.15981">
        <ele>576.3</ele>
        <time>2015-09-22T09:22:37Z</time>
      </trkpt>
      <trkpt lat="42.3458" lon="0.15975">
        <ele>576.1</ele>
        <time>2015-09-22T09:22:39Z</time>
      </trkpt>
      <trkpt lat="42.34579" lon="0.15969">
        <ele>576</ele>
        <time>2015-09-22T09:22:41Z</time>
      </trkpt>
      <trkpt lat="42.34581" lon="0.15964">
        <ele>576</ele>
        <time>2015-09-22T09:22:43Z</time>
      </trkpt>
      <trkpt lat="42.34584" lon="0.15959">
        <ele>576</ele>
        <time>2015-09-22T09:22:45Z</time>
      </trkpt>
      <trkpt lat="42.34586" lon="0.15953">
        <ele>576.2</ele>
        <time>2015-09-22T09:22:47Z</time>
      </trkpt>
      <trkpt lat="42.34586" lon="0.15947">
        <ele>576.3</ele>
        <time>2015-09-22T09:22:49Z</time>
      </trkpt>
      <trkpt lat="42.34583" lon="0.15942">
        <ele>576.2</ele>
        <time>2015-09-22T09:22:51Z</time>
      </trkpt>
      <trkpt lat="42.34579" lon="0.15939">
        <ele>576</ele>
        <time>2015-09-22T09:22:53Z</time>
      </trkpt>
      <trkpt lat="42.34573" lon="0.15937">
        <ele>575.7</ele>
        <time>2015-09-22T09:22:55Z</time>
      </trkpt>
      <trkpt lat="42.34571" lon="0.15936">
        <ele>575.6</ele>
        <time>2015-09-22T09:22:56Z</time>
      </trkpt>
      <trkpt lat="42.34568" lon="0.15935">
        <ele>575.4</ele>
        <time>2015-09-22T09:22:57Z</time>
      </trkpt>
      <trkpt lat="42.34565" lon="0.15933">
        <ele>575.3</ele>
        <time>2015-09-22T09:22:58Z</time>
      </trkpt>
      <trkpt lat="42.34562" lon="0.15931">
        <ele>575.1</ele>
        <time>2015-09-22T09:22:59Z</time>
      </trkpt>
      <trkpt lat="42.34558" lon="0.15928">
        <ele>574.9</ele>
        <time>2015-09-22T09:23:00Z</time>
      </trkpt>
      <trkpt lat="42.34555" lon="0.15925">
        <ele>574.8</ele>
        <time>2015-09-22T09:23:01Z</time>
      </trkpt>
      <trkpt lat="42.34552" lon="0.15922">
        <ele>574.6</ele>
        <time>2015-09-22T09:23:02Z</time>
      </trkpt>
      <trkpt lat="42.34549" lon="0.15918">
        <ele>574.4</ele>
        <time>2015-09-22T09:23:03Z</time>
      </trkpt>
      <trkpt lat="42.34547" lon="0.15915">
        <ele>574.3</ele>
        <time>2015-09-22T09:23:04Z</time>
      </trkpt>
      <trkpt lat="42.34544" lon="0.1591">
        <ele>574.2</ele>
        <time>2015-09-22T09:23:05Z</time>
      </trkpt>
      <trkpt lat="42.34543" lon="0.15906">
        <ele>574.1</ele>
        <time>2015-09-22T09:23:06Z</time>
      </trkpt>
      <trkpt lat="42.34541" lon="0.15901">
        <ele>573.9</ele>
        <time>2015-09-22T09:23:07Z</time>
      </trkpt>
      <trkpt lat="42.3454" lon="0.15897">
        <ele>573.8</ele>
        <time>2015-09-22T09:23:08Z</time>
      </trkpt>
      <trkpt lat="42.34541" lon="0.15891">
        <ele>573.9</ele>
        <time>2015-09-22T09:23:09Z</time>
      </trkpt>
      <trkpt lat="42.34541" lon="0.15886">
        <ele>573.9</ele>
        <time>2015-09-22T09:23:10Z</time>
      </trkpt>
      <trkpt lat="42.34542" lon="0.1588">
        <ele>574</ele>
        <time>2015-09-22T09:23:11Z</time>
      </trkpt>
      <trkpt lat="42.34543" lon="0.15875">
        <ele>574.1</ele>
        <time>2015-09-22T09:23:12Z</time>
      </trkpt>
      <trkpt lat="42.34544" lon="0.1587">
        <ele>573.8</ele>
        <time>2015-09-22T09:23:13Z</time>
      </trkpt>
      <trkpt lat="42.34545" lon="0.15865">
        <ele>573.5</ele>
        <time>2015-09-22T09:23:14Z</time>
      </trkpt>
      <trkpt lat="42.34547" lon="0.1586">
        <ele>573.3</ele>
        <time>2015-09-22T09:23:15Z</time>
      </trkpt>
      <trkpt lat="42.34549" lon="0.15855">
        <ele>573.2</ele>
        <time>2015-09-22T09:23:16Z</time>
      </trkpt>
      <trkpt lat="42.34551" lon="0.1585">
        <ele>573</ele>
        <time>2015-09-22T09:23:17Z</time>
      </trkpt>
      <trkpt lat="42.34553" lon="0.15846">
        <ele>572.9</ele>
        <time>2015-09-22T09:23:18Z</time>
      </trkpt>
      <trkpt lat="42.34555" lon="0.1584">
        <ele>572.7</ele>
        <time>2015-09-22T09:23:19Z</time>
      </trkpt>
      <trkpt lat="42.34557" lon="0.15834">
        <ele>572.5</ele>
        <time>2015-09-22T09:23:20Z</time>
      </trkpt>
      <trkpt lat="42.3456" lon="0.15826">
        <ele>572.3</ele>
        <time>2015-09-22T09:23:21Z</time>
      </trkpt>
      <trkpt lat="42.34562" lon="0.1582">
        <ele>572.1</ele>
        <time>2015-09-22T09:23:22Z</time>
      </trkpt>
      <trkpt lat="42.34563" lon="0.15813">
        <ele>571.9</ele>
        <time>2015-09-22T09:23:23Z</time>
      </trkpt>
      <trkpt lat="42.34565" lon="0.15806">
        <ele>571.7</ele>
        <time>2015-09-22T09:23:24Z</time>
      </trkpt>
      <trkpt lat="42.34567" lon="0.15799">
        <ele>571.5</ele>
        <time>2015-09-22T09:23:25Z</time>
      </trkpt>
      <trkpt lat="42.34569" lon="0.15792">
        <ele>571.4</ele>
        <time>2015-09-22T09:23:26Z</time>
      </trkpt>
      <trkpt lat="42.34572" lon="0.15785">
        <ele>571.6</ele>
        <time>2015-09-22T09:23:27Z</time>
      </trkpt>
      <trkpt lat="42.34573" lon="0.15778">
        <ele>571.9</ele>
        <time>2015-09-22T09:23:28Z</time>
      </trkpt>
      <trkpt lat="42.34574" lon="0.15771">
        <ele>572.1</ele>
        <time>2015-09-22T09:23:29Z</time>
      </trkpt>
      <trkpt lat="42.34576" lon="0.15764">
        <ele>572.3</ele>
        <time>2015-09-22T09:23:30Z</time>
      </trkpt>
      <trkpt lat="42.34576" lon="0.15757">
        <ele>572.4</ele>
        <time>2015-09-22T09:23:31Z</time>
      </trkpt>
      <trkpt lat="42.34577" lon="0.1575">
        <ele>572.5</ele>
        <time>2015-09-22T09:23:32Z</time>
      </trkpt>
      <trkpt lat="42.34578" lon="0.15743">
        <ele>572.7</ele>
        <time>2015-09-22T09:23:33Z</time>
      </trkpt>
      <trkpt lat="42.34579" lon="0.15736">
        <ele>572.9</ele>
        <time>2015-09-22T09:23:34Z</time>
      </trkpt>
      <trkpt lat="42.3458" lon="0.15729">
        <ele>573</ele>
        <time>2015-09-22T09:23:35Z</time>
      </trkpt>
      <trkpt lat="42.34581" lon="0.15722">
        <ele>573.1</ele>
        <time>2015-09-22T09:23:36Z</time>
      </trkpt>
      <trkpt lat="42.34581" lon="0.15714">
        <ele>573.2</ele>
        <time>2015-09-22T09:23:37Z</time>
      </trkpt>
      <trkpt lat="42.34582" lon="0.15708">
        <ele>573.4</ele>
        <time>2015-09-22T09:23:38Z</time>
      </trkpt>
      <trkpt lat="42.34582" lon="0.15702">
        <ele>573.7</ele>
        <time>2015-09-22T09:23:39Z</time>
      </trkpt>
      <trkpt lat="42.34581" lon="0.15696">
        <ele>574.1</ele>
        <time>2015-09-22T09:23:40Z</time>
      </trkpt>
      <trkpt lat="42.34581" lon="0.1569">
        <ele>574.4</ele>
        <time>2015-09-22T09:23:41Z</time>
      </trkpt>
      <trkpt lat="42.3458" lon="0.15684">
        <ele>574.6</ele>
        <time>2015-09-22T09:23:42Z</time>
      </trkpt>
      <trkpt lat="42.3458" lon="0.15678">
        <ele>574.9</ele>
        <time>2015-09-22T09:23:43Z</time>
      </trkpt>
      <trkpt lat="42.3458" lon="0.15673">
        <ele>575.2</ele>
        <time>2015-09-22T09:23:44Z</time>
      </trkpt>
      <trkpt lat="42.34579" lon="0.15667">
        <ele>575.5</ele>
        <time>2015-09-22T09:23:45Z</time>
      </trkpt>
      <trkpt lat="42.34579" lon="0.15662">
        <ele>575.8</ele>
        <time>2015-09-22T09:23:46Z</time>
      </trkpt>
      <trkpt lat="42.34579" lon="0.15657">
        <ele>576.1</ele>
        <time>2015-09-22T09:23:47Z</time>
      </trkpt>
      <trkpt lat="42.34578" lon="0.15653">
        <ele>576.3</ele>
        <time>2015-09-22T09:23:48Z</time>
      </trkpt>
      <trkpt lat="42.34578" lon="0.15647">
        <ele>576.6</ele>
        <time>2015-09-22T09:23:49Z</time>
      </trkpt>
      <trkpt lat="42.34578" lon="0.15642">
        <ele>576.9</ele>
        <time>2015-09-22T09:23:50Z</time>
      </trkpt>
      <trkpt lat="42.34578" lon="0.15637">
        <ele>577.2</ele>
        <time>2015-09-22T09:23:51Z</time>
      </trkpt>
      <trkpt lat="42.34577" lon="0.15631">
        <ele>577.4</ele>
        <time>2015-09-22T09:23:52Z</time>
      </trkpt>
      <trkpt lat="42.34576" lon="0.15626">
        <ele>577.6</ele>
        <time>2015-09-22T09:23:53Z</time>
      </trkpt>
      <trkpt lat="42.34574" lon="0.15622">
        <ele>577.7</ele>
        <time>2015-09-22T09:23:54Z</time>
      </trkpt>
      <trkpt lat="42.34572" lon="0.15617">
        <ele>577.7</ele>
        <time>2015-09-22T09:23:55Z</time>
      </trkpt>
      <trkpt lat="42.3457" lon="0.15613">
        <ele>577.8</ele>
        <time>2015-09-22T09:23:56Z</time>
      </trkpt>
      <trkpt lat="42.34567" lon="0.1561">
        <ele>577.7</ele>
        <time>2015-09-22T09:23:57Z</time>
      </trkpt>
      <trkpt lat="42.34564" lon="0.15607">
        <ele>577.6</ele>
        <time>2015-09-22T09:23:58Z</time>
      </trkpt>
      <trkpt lat="42.34562" lon="0.15604">
        <ele>577.5</ele>
        <time>2015-09-22T09:23:59Z</time>
      </trkpt>
      <trkpt lat="42.34559" lon="0.15601">
        <ele>577.4</ele>
        <time>2015-09-22T09:24:00Z</time>
      </trkpt>
      <trkpt lat="42.34557" lon="0.15598">
        <ele>577.3</ele>
        <time>2015-09-22T09:24:01Z</time>
      </trkpt>
      <trkpt lat="42.34554" lon="0.15595">
        <ele>577.2</ele>
        <time>2015-09-22T09:24:02Z</time>
      </trkpt>
      <trkpt lat="42.34552" lon="0.15592">
        <ele>577.1</ele>
        <time>2015-09-22T09:24:03Z</time>
      </trkpt>
      <trkpt lat="42.3455" lon="0.15589">
        <ele>577.1</ele>
        <time>2015-09-22T09:24:04Z</time>
      </trkpt>
      <trkpt lat="42.34548" lon="0.15586">
        <ele>577.1</ele>
        <time>2015-09-22T09:24:05Z</time>
      </trkpt>
      <trkpt lat="42.34547" lon="0.15582">
        <ele>577.2</ele>
        <time>2015-09-22T09:24:06Z</time>
      </trkpt>
      <trkpt lat="42.34547" lon="0.15577">
        <ele>577.5</ele>
        <time>2015-09-22T09:24:07Z</time>
      </trkpt>
      <trkpt lat="42.34547" lon="0.15573">
        <ele>577.8</ele>
        <time>2015-09-22T09:24:08Z</time>
      </trkpt>
      <trkpt lat="42.34548" lon="0.15568">
        <ele>578.1</ele>
        <time>2015-09-22T09:24:09Z</time>
      </trkpt>
      <trkpt lat="42.34548" lon="0.15564">
        <ele>578.4</ele>
        <time>2015-09-22T09:24:10Z</time>
      </trkpt>
      <trkpt lat="42.34548" lon="0.15558">
        <ele>578.8</ele>
        <time>2015-09-22T09:24:12Z</time>
      </trkpt>
      <trkpt lat="42.34548" lon="0.15552">
        <ele>579.1</ele>
        <time>2015-09-22T09:24:14Z</time>
      </trkpt>
      <trkpt lat="42.34548" lon="0.15546">
        <ele>579.5</ele>
        <time>2015-09-22T09:24:16Z</time>
      </trkpt>
      <trkpt lat="42.34547" lon="0.15539">
        <ele>579.8</ele>
        <time>2015-09-22T09:24:18Z</time>
      </trkpt>
      <trkpt lat="42.34547" lon="0.15535">
        <ele>580</ele>
        <time>2015-09-22T09:24:19Z</time>
      </trkpt>
      <trkpt lat="42.34547" lon="0.15527">
        <ele>580.2</ele>
        <time>2015-09-22T09:24:21Z</time>
      </trkpt>
      <trkpt lat="42.34546" lon="0.1552">
        <ele>580.5</ele>
        <time>2015-09-22T09:24:23Z</time>
      </trkpt>
      <trkpt lat="42.34545" lon="0.15513">
        <ele>580.7</ele>
        <time>2015-09-22T09:24:25Z</time>
      </trkpt>
      <trkpt lat="42.34543" lon="0.15507">
        <ele>580.8</ele>
        <time>2015-09-22T09:24:27Z</time>
      </trkpt>
      <trkpt lat="42.34541" lon="0.155">
        <ele>580.9</ele>
        <time>2015-09-22T09:24:29Z</time>
      </trkpt>
      <trkpt lat="42.34538" lon="0.15494">
        <ele>581</ele>
        <time>2015-09-22T09:24:31Z</time>
      </trkpt>
      <trkpt lat="42.34536" lon="0.1549">
        <ele>581</ele>
        <time>2015-09-22T09:24:33Z</time>
      </trkpt>
      <trkpt lat="42.34536" lon="0.15485">
        <ele>581.2</ele>
        <time>2015-09-22T09:24:35Z</time>
      </trkpt>
      <trkpt lat="42.34536" lon="0.15479">
        <ele>581.5</ele>
        <time>2015-09-22T09:24:37Z</time>
      </trkpt>
      <trkpt lat="42.34535" lon="0.15473">
        <ele>581.7</ele>
        <time>2015-09-22T09:24:39Z</time>
      </trkpt>
      <trkpt lat="42.34536" lon="0.15467">
        <ele>582</ele>
        <time>2015-09-22T09:24:41Z</time>
      </trkpt>
      <trkpt lat="42.34535" lon="0.15461">
        <ele>582.3</ele>
        <time>2015-09-22T09:24:43Z</time>
      </trkpt>
      <trkpt lat="42.34534" lon="0.15455">
        <ele>582.5</ele>
        <time>2015-09-22T09:24:45Z</time>
      </trkpt>
      <trkpt lat="42.34533" lon="0.15449">
        <ele>582.7</ele>
        <time>2015-09-22T09:24:47Z</time>
      </trkpt>
      <trkpt lat="42.34532" lon="0.15443">
        <ele>582.9</ele>
        <time>2015-09-22T09:24:49Z</time>
      </trkpt>
      <trkpt lat="42.34531" lon="0.15438">
        <ele>583</ele>
        <time>2015-09-22T09:24:51Z</time>
      </trkpt>
      <trkpt lat="42.3453" lon="0.15431">
        <ele>583.3</ele>
        <time>2015-09-22T09:24:53Z</time>
      </trkpt>
      <trkpt lat="42.34529" lon="0.15424">
        <ele>583.6</ele>
        <time>2015-09-22T09:24:55Z</time>
      </trkpt>
      <trkpt lat="42.34529" lon="0.15417">
        <ele>583.9</ele>
        <time>2015-09-22T09:24:57Z</time>
      </trkpt>
      <trkpt lat="42.34528" lon="0.1541">
        <ele>584.2</ele>
        <time>2015-09-22T09:24:59Z</time>
      </trkpt>
      <trkpt lat="42.34527" lon="0.15404">
        <ele>584.4</ele>
        <time>2015-09-22T09:25:01Z</time>
      </trkpt>
      <trkpt lat="42.34526" lon="0.15398">
        <ele>584.6</ele>
        <time>2015-09-22T09:25:03Z</time>
      </trkpt>
      <trkpt lat="42.34524" lon="0.15391">
        <ele>584.7</ele>
        <time>2015-09-22T09:25:05Z</time>
      </trkpt>
      <trkpt lat="42.34523" lon="0.15385">
        <ele>584.8</ele>
        <time>2015-09-22T09:25:07Z</time>
      </trkpt>
      <trkpt lat="42.34521" lon="0.15379">
        <ele>584.8</ele>
        <time>2015-09-22T09:25:09Z</time>
      </trkpt>
      <trkpt lat="42.3452" lon="0.15373">
        <ele>585</ele>
        <time>2015-09-22T09:25:11Z</time>
      </trkpt>
      <trkpt lat="42.34518" lon="0.15367">
        <ele>585.2</ele>
        <time>2015-09-22T09:25:13Z</time>
      </trkpt>
      <trkpt lat="42.34517" lon="0.15361">
        <ele>585.4</ele>
        <time>2015-09-22T09:25:15Z</time>
      </trkpt>
      <trkpt lat="42.34515" lon="0.15355">
        <ele>585.6</ele>
        <time>2015-09-22T09:25:17Z</time>
      </trkpt>
      <trkpt lat="42.34514" lon="0.15349">
        <ele>585.8</ele>
        <time>2015-09-22T09:25:19Z</time>
      </trkpt>
      <trkpt lat="42.34513" lon="0.15342">
        <ele>586.2</ele>
        <time>2015-09-22T09:25:21Z</time>
      </trkpt>
      <trkpt lat="42.34512" lon="0.15335">
        <ele>586.6</ele>
        <time>2015-09-22T09:25:23Z</time>
      </trkpt>
      <trkpt lat="42.34511" lon="0.15329">
        <ele>586.8</ele>
        <time>2015-09-22T09:25:25Z</time>
      </trkpt>
      <trkpt lat="42.3451" lon="0.15322">
        <ele>587</ele>
        <time>2015-09-22T09:25:27Z</time>
      </trkpt>
      <trkpt lat="42.34509" lon="0.15316">
        <ele>587.2</ele>
        <time>2015-09-22T09:25:29Z</time>
      </trkpt>
      <trkpt lat="42.34507" lon="0.1531">
        <ele>587.4</ele>
        <time>2015-09-22T09:25:31Z</time>
      </trkpt>
      <trkpt lat="42.34506" lon="0.15303">
        <ele>587.5</ele>
        <time>2015-09-22T09:25:33Z</time>
      </trkpt>
      <trkpt lat="42.34505" lon="0.15297">
        <ele>587.7</ele>
        <time>2015-09-22T09:25:35Z</time>
      </trkpt>
      <trkpt lat="42.34503" lon="0.15292">
        <ele>587.7</ele>
        <time>2015-09-22T09:25:37Z</time>
      </trkpt>
      <trkpt lat="42.34502" lon="0.15287">
        <ele>587.4</ele>
        <time>2015-09-22T09:25:39Z</time>
      </trkpt>
      <trkpt lat="42.345" lon="0.15281">
        <ele>587.2</ele>
        <time>2015-09-22T09:25:41Z</time>
      </trkpt>
      <trkpt lat="42.345" lon="0.15275">
        <ele>587.4</ele>
        <time>2015-09-22T09:25:43Z</time>
      </trkpt>
      <trkpt lat="42.34501" lon="0.15269">
        <ele>587.8</ele>
        <time>2015-09-22T09:25:45Z</time>
      </trkpt>
      <trkpt lat="42.34503" lon="0.15262">
        <ele>588.2</ele>
        <time>2015-09-22T09:25:47Z</time>
      </trkpt>
      <trkpt lat="42.34505" lon="0.15255">
        <ele>588.8</ele>
        <time>2015-09-22T09:25:49Z</time>
      </trkpt>
      <trkpt lat="42.34506" lon="0.15252">
        <ele>589.2</ele>
        <time>2015-09-22T09:25:50Z</time>
      </trkpt>
      <trkpt lat="42.34506" lon="0.15248">
        <ele>589.4</ele>
        <time>2015-09-22T09:25:51Z</time>
      </trkpt>
      <trkpt lat="42.34507" lon="0.15244">
        <ele>589.6</ele>
        <time>2015-09-22T09:25:52Z</time>
      </trkpt>
      <trkpt lat="42.34507" lon="0.1524">
        <ele>589.7</ele>
        <time>2015-09-22T09:25:53Z</time>
      </trkpt>
      <trkpt lat="42.34507" lon="0.15237">
        <ele>589.8</ele>
        <time>2015-09-22T09:25:54Z</time>
      </trkpt>
      <trkpt lat="42.34507" lon="0.15233">
        <ele>590</ele>
        <time>2015-09-22T09:25:55Z</time>
      </trkpt>
      <trkpt lat="42.34507" lon="0.15226">
        <ele>590.2</ele>
        <time>2015-09-22T09:25:57Z</time>
      </trkpt>
      <trkpt lat="42.34508" lon="0.15221">
        <ele>590.5</ele>
        <time>2015-09-22T09:25:59Z</time>
      </trkpt>
      <trkpt lat="42.34511" lon="0.1522">
        <ele>591.1</ele>
        <time>2015-09-22T09:26:07Z</time>
      </trkpt>
      <trkpt lat="42.34508" lon="0.15219">
        <ele>590.4</ele>
        <time>2015-09-22T09:27:34Z</time>
      </trkpt>
      <trkpt lat="42.34506" lon="0.15215">
        <ele>590.2</ele>
        <time>2015-09-22T09:27:40Z</time>
      </trkpt>
      <trkpt lat="42.34506" lon="0.15208">
        <ele>590.2</ele>
        <time>2015-09-22T09:27:42Z</time>
      </trkpt>
      <trkpt lat="42.34506" lon="0.15203">
        <ele>590.7</ele>
        <time>2015-09-22T09:27:43Z</time>
      </trkpt>
      <trkpt lat="42.34506" lon="0.15199">
        <ele>591.3</ele>
        <time>2015-09-22T09:27:44Z</time>
      </trkpt>
      <trkpt lat="42.34507" lon="0.15195">
        <ele>591.8</ele>
        <time>2015-09-22T09:27:45Z</time>
      </trkpt>
      <trkpt lat="42.34507" lon="0.1519">
        <ele>592.2</ele>
        <time>2015-09-22T09:27:46Z</time>
      </trkpt>
      <trkpt lat="42.34506" lon="0.15185">
        <ele>592.6</ele>
        <time>2015-09-22T09:27:47Z</time>
      </trkpt>
      <trkpt lat="42.34506" lon="0.1518">
        <ele>592.9</ele>
        <time>2015-09-22T09:27:48Z</time>
      </trkpt>
      <trkpt lat="42.34505" lon="0.15174">
        <ele>593.3</ele>
        <time>2015-09-22T09:27:49Z</time>
      </trkpt>
      <trkpt lat="42.34505" lon="0.15169">
        <ele>593.7</ele>
        <time>2015-09-22T09:27:50Z</time>
      </trkpt>
      <trkpt lat="42.34504" lon="0.15164">
        <ele>594.1</ele>
        <time>2015-09-22T09:27:51Z</time>
      </trkpt>
      <trkpt lat="42.34503" lon="0.15159">
        <ele>594.4</ele>
        <time>2015-09-22T09:27:52Z</time>
      </trkpt>
      <trkpt lat="42.34502" lon="0.15154">
        <ele>594.6</ele>
        <time>2015-09-22T09:27:53Z</time>
      </trkpt>
      <trkpt lat="42.345" lon="0.15149">
        <ele>594.7</ele>
        <time>2015-09-22T09:27:54Z</time>
      </trkpt>
      <trkpt lat="42.34499" lon="0.15144">
        <ele>594.9</ele>
        <time>2015-09-22T09:27:55Z</time>
      </trkpt>
      <trkpt lat="42.34497" lon="0.1514">
        <ele>595.1</ele>
        <time>2015-09-22T09:27:56Z</time>
      </trkpt>
      <trkpt lat="42.34496" lon="0.15135">
        <ele>595.2</ele>
        <time>2015-09-22T09:27:57Z</time>
      </trkpt>
      <trkpt lat="42.34495" lon="0.1513">
        <ele>595.4</ele>
        <time>2015-09-22T09:27:58Z</time>
      </trkpt>
      <trkpt lat="42.34493" lon="0.15126">
        <ele>595.7</ele>
        <time>2015-09-22T09:27:59Z</time>
      </trkpt>
      <trkpt lat="42.34492" lon="0.15121">
        <ele>595.8</ele>
        <time>2015-09-22T09:28:00Z</time>
      </trkpt>
      <trkpt lat="42.34492" lon="0.15117">
        <ele>596</ele>
        <time>2015-09-22T09:28:01Z</time>
      </trkpt>
      <trkpt lat="42.34491" lon="0.15112">
        <ele>596.1</ele>
        <time>2015-09-22T09:28:02Z</time>
      </trkpt>
      <trkpt lat="42.3449" lon="0.15109">
        <ele>596.2</ele>
        <time>2015-09-22T09:28:03Z</time>
      </trkpt>
      <trkpt lat="42.34489" lon="0.15105">
        <ele>596.3</ele>
        <time>2015-09-22T09:28:04Z</time>
      </trkpt>
      <trkpt lat="42.34488" lon="0.15101">
        <ele>596.4</ele>
        <time>2015-09-22T09:28:05Z</time>
      </trkpt>
      <trkpt lat="42.34487" lon="0.15098">
        <ele>596.4</ele>
        <time>2015-09-22T09:28:06Z</time>
      </trkpt>
      <trkpt lat="42.34486" lon="0.15094">
        <ele>596.5</ele>
        <time>2015-09-22T09:28:07Z</time>
      </trkpt>
      <trkpt lat="42.34485" lon="0.1509">
        <ele>596.6</ele>
        <time>2015-09-22T09:28:08Z</time>
      </trkpt>
      <trkpt lat="42.34484" lon="0.15087">
        <ele>596.7</ele>
        <time>2015-09-22T09:28:09Z</time>
      </trkpt>
      <trkpt lat="42.34483" lon="0.15081">
        <ele>597</ele>
        <time>2015-09-22T09:28:11Z</time>
      </trkpt>
      <trkpt lat="42.34483" lon="0.15075">
        <ele>597.4</ele>
        <time>2015-09-22T09:28:13Z</time>
      </trkpt>
      <trkpt lat="42.34485" lon="0.15069">
        <ele>598.1</ele>
        <time>2015-09-22T09:28:15Z</time>
      </trkpt>
      <trkpt lat="42.34488" lon="0.15064">
        <ele>599.1</ele>
        <time>2015-09-22T09:28:17Z</time>
      </trkpt>
      <trkpt lat="42.34493" lon="0.1506">
        <ele>600.1</ele>
        <time>2015-09-22T09:28:19Z</time>
      </trkpt>
      <trkpt lat="42.34497" lon="0.15055">
        <ele>601.1</ele>
        <time>2015-09-22T09:28:21Z</time>
      </trkpt>
      <trkpt lat="42.34499" lon="0.15053">
        <ele>601.6</ele>
        <time>2015-09-22T09:28:22Z</time>
      </trkpt>
      <trkpt lat="42.34501" lon="0.15051">
        <ele>602.1</ele>
        <time>2015-09-22T09:28:23Z</time>
      </trkpt>
      <trkpt lat="42.34504" lon="0.15048">
        <ele>602.7</ele>
        <time>2015-09-22T09:28:24Z</time>
      </trkpt>
      <trkpt lat="42.34507" lon="0.15045">
        <ele>603.3</ele>
        <time>2015-09-22T09:28:25Z</time>
      </trkpt>
      <trkpt lat="42.3451" lon="0.15043">
        <ele>603.9</ele>
        <time>2015-09-22T09:28:26Z</time>
      </trkpt>
      <trkpt lat="42.34513" lon="0.1504">
        <ele>604.5</ele>
        <time>2015-09-22T09:28:27Z</time>
      </trkpt>
      <trkpt lat="42.34515" lon="0.15036">
        <ele>604.9</ele>
        <time>2015-09-22T09:28:28Z</time>
      </trkpt>
      <trkpt lat="42.34518" lon="0.15033">
        <ele>605.3</ele>
        <time>2015-09-22T09:28:29Z</time>
      </trkpt>
      <trkpt lat="42.34521" lon="0.1503">
        <ele>605.8</ele>
        <time>2015-09-22T09:28:30Z</time>
      </trkpt>
      <trkpt lat="42.34524" lon="0.15026">
        <ele>606.3</ele>
        <time>2015-09-22T09:28:31Z</time>
      </trkpt>
      <trkpt lat="42.34528" lon="0.15023">
        <ele>606.7</ele>
        <time>2015-09-22T09:28:32Z</time>
      </trkpt>
      <trkpt lat="42.34531" lon="0.15019">
        <ele>607.2</ele>
        <time>2015-09-22T09:28:33Z</time>
      </trkpt>
      <trkpt lat="42.34534" lon="0.15016">
        <ele>607.7</ele>
        <time>2015-09-22T09:28:34Z</time>
      </trkpt>
      <trkpt lat="42.34538" lon="0.15013">
        <ele>608.1</ele>
        <time>2015-09-22T09:28:35Z</time>
      </trkpt>
      <trkpt lat="42.34541" lon="0.1501">
        <ele>608.6</ele>
        <time>2015-09-22T09:28:36Z</time>
      </trkpt>
      <trkpt lat="42.34545" lon="0.15007">
        <ele>608.7</ele>
        <time>2015-09-22T09:28:37Z</time>
      </trkpt>
      <trkpt lat="42.34548" lon="0.15003">
        <ele>608.7</ele>
        <time>2015-09-22T09:28:38Z</time>
      </trkpt>
      <trkpt lat="42.34552" lon="0.15">
        <ele>608.8</ele>
        <time>2015-09-22T09:28:39Z</time>
      </trkpt>
      <trkpt lat="42.34555" lon="0.14997">
        <ele>608.9</ele>
        <time>2015-09-22T09:28:40Z</time>
      </trkpt>
      <trkpt lat="42.34558" lon="0.14993">
        <ele>609</ele>
        <time>2015-09-22T09:28:41Z</time>
      </trkpt>
      <trkpt lat="42.34561" lon="0.14991">
        <ele>609.1</ele>
        <time>2015-09-22T09:28:42Z</time>
      </trkpt>
      <trkpt lat="42.34564" lon="0.14988">
        <ele>609.2</ele>
        <time>2015-09-22T09:28:43Z</time>
      </trkpt>
      <trkpt lat="42.34566" lon="0.14984">
        <ele>609.3</ele>
        <time>2015-09-22T09:28:44Z</time>
      </trkpt>
      <trkpt lat="42.34567" lon="0.1498">
        <ele>609.4</ele>
        <time>2015-09-22T09:28:45Z</time>
      </trkpt>
      <trkpt lat="42.34568" lon="0.14976">
        <ele>609.5</ele>
        <time>2015-09-22T09:28:46Z</time>
      </trkpt>
      <trkpt lat="42.34568" lon="0.14971">
        <ele>609.5</ele>
        <time>2015-09-22T09:28:47Z</time>
      </trkpt>
      <trkpt lat="42.34567" lon="0.14967">
        <ele>609.4</ele>
        <time>2015-09-22T09:28:48Z</time>
      </trkpt>
      <trkpt lat="42.34565" lon="0.14963">
        <ele>609.4</ele>
        <time>2015-09-22T09:28:49Z</time>
      </trkpt>
      <trkpt lat="42.34563" lon="0.14959">
        <ele>609.3</ele>
        <time>2015-09-22T09:28:50Z</time>
      </trkpt>
      <trkpt lat="42.34561" lon="0.14956">
        <ele>609.3</ele>
        <time>2015-09-22T09:28:51Z</time>
      </trkpt>
      <trkpt lat="42.34559" lon="0.14952">
        <ele>609.3</ele>
        <time>2015-09-22T09:28:52Z</time>
      </trkpt>
      <trkpt lat="42.34557" lon="0.14949">
        <ele>609.4</ele>
        <time>2015-09-22T09:28:53Z</time>
      </trkpt>
      <trkpt lat="42.34554" lon="0.14946">
        <ele>609.4</ele>
        <time>2015-09-22T09:28:54Z</time>
      </trkpt>
      <trkpt lat="42.34552" lon="0.14943">
        <ele>609.4</ele>
        <time>2015-09-22T09:28:55Z</time>
      </trkpt>
      <trkpt lat="42.3455" lon="0.14941">
        <ele>609.4</ele>
        <time>2015-09-22T09:28:56Z</time>
      </trkpt>
      <trkpt lat="42.34548" lon="0.14938">
        <ele>609.4</ele>
        <time>2015-09-22T09:28:57Z</time>
      </trkpt>
      <trkpt lat="42.34546" lon="0.14934">
        <ele>609.4</ele>
        <time>2015-09-22T09:28:58Z</time>
      </trkpt>
      <trkpt lat="42.34545" lon="0.1493">
        <ele>609.6</ele>
        <time>2015-09-22T09:28:59Z</time>
      </trkpt>
      <trkpt lat="42.34545" lon="0.14926">
        <ele>609.8</ele>
        <time>2015-09-22T09:29:00Z</time>
      </trkpt>
      <trkpt lat="42.34547" lon="0.14922">
        <ele>610.1</ele>
        <time>2015-09-22T09:29:01Z</time>
      </trkpt>
      <trkpt lat="42.3455" lon="0.14919">
        <ele>610.4</ele>
        <time>2015-09-22T09:29:02Z</time>
      </trkpt>
      <trkpt lat="42.34552" lon="0.14916">
        <ele>610.8</ele>
        <time>2015-09-22T09:29:03Z</time>
      </trkpt>
      <trkpt lat="42.34554" lon="0.14913">
        <ele>611.1</ele>
        <time>2015-09-22T09:29:04Z</time>
      </trkpt>
      <trkpt lat="42.34556" lon="0.14909">
        <ele>611.4</ele>
        <time>2015-09-22T09:29:05Z</time>
      </trkpt>
      <trkpt lat="42.34557" lon="0.14905">
        <ele>611.7</ele>
        <time>2015-09-22T09:29:06Z</time>
      </trkpt>
      <trkpt lat="42.34557" lon="0.14901">
        <ele>611.9</ele>
        <time>2015-09-22T09:29:07Z</time>
      </trkpt>
      <trkpt lat="42.34556" lon="0.14897">
        <ele>612</ele>
        <time>2015-09-22T09:29:08Z</time>
      </trkpt>
      <trkpt lat="42.34555" lon="0.14893">
        <ele>612.2</ele>
        <time>2015-09-22T09:29:09Z</time>
      </trkpt>
      <trkpt lat="42.34554" lon="0.14889">
        <ele>612.3</ele>
        <time>2015-09-22T09:29:10Z</time>
      </trkpt>
      <trkpt lat="42.34553" lon="0.14885">
        <ele>612.4</ele>
        <time>2015-09-22T09:29:11Z</time>
      </trkpt>
      <trkpt lat="42.34552" lon="0.14881">
        <ele>612.6</ele>
        <time>2015-09-22T09:29:12Z</time>
      </trkpt>
      <trkpt lat="42.34552" lon="0.14877">
        <ele>612.8</ele>
        <time>2015-09-22T09:29:13Z</time>
      </trkpt>
      <trkpt lat="42.34551" lon="0.14872">
        <ele>613.1</ele>
        <time>2015-09-22T09:29:14Z</time>
      </trkpt>
      <trkpt lat="42.34551" lon="0.14868">
        <ele>613.6</ele>
        <time>2015-09-22T09:29:15Z</time>
      </trkpt>
      <trkpt lat="42.34551" lon="0.14863">
        <ele>614</ele>
        <time>2015-09-22T09:29:16Z</time>
      </trkpt>
      <trkpt lat="42.34548" lon="0.14857">
        <ele>614.4</ele>
        <time>2015-09-22T09:29:17Z</time>
      </trkpt>
      <trkpt lat="42.34543" lon="0.14852">
        <ele>614.7</ele>
        <time>2015-09-22T09:29:18Z</time>
      </trkpt>
      <trkpt lat="42.34541" lon="0.14849">
        <ele>614.7</ele>
        <time>2015-09-22T09:29:19Z</time>
      </trkpt>
      <trkpt lat="42.34537" lon="0.14844">
        <ele>614.8</ele>
        <time>2015-09-22T09:29:21Z</time>
      </trkpt>
      <trkpt lat="42.34536" lon="0.14839">
        <ele>615.3</ele>
        <time>2015-09-22T09:29:23Z</time>
      </trkpt>
      <trkpt lat="42.34536" lon="0.14835">
        <ele>615.7</ele>
        <time>2015-09-22T09:29:25Z</time>
      </trkpt>
      <trkpt lat="42.34535" lon="0.14831">
        <ele>616</ele>
        <time>2015-09-22T09:29:27Z</time>
      </trkpt>
      <trkpt lat="42.34535" lon="0.14827">
        <ele>616.5</ele>
        <time>2015-09-22T09:29:29Z</time>
      </trkpt>
      <trkpt lat="42.34536" lon="0.14823">
        <ele>617</ele>
        <time>2015-09-22T09:29:31Z</time>
      </trkpt>
      <trkpt lat="42.34536" lon="0.14818">
        <ele>617.6</ele>
        <time>2015-09-22T09:29:33Z</time>
      </trkpt>
      <trkpt lat="42.34536" lon="0.14813">
        <ele>618.2</ele>
        <time>2015-09-22T09:29:35Z</time>
      </trkpt>
      <trkpt lat="42.34535" lon="0.14808">
        <ele>618.6</ele>
        <time>2015-09-22T09:29:37Z</time>
      </trkpt>
      <trkpt lat="42.34534" lon="0.14803">
        <ele>619</ele>
        <time>2015-09-22T09:29:39Z</time>
      </trkpt>
      <trkpt lat="42.34533" lon="0.14798">
        <ele>619.5</ele>
        <time>2015-09-22T09:29:41Z</time>
      </trkpt>
      <trkpt lat="42.34533" lon="0.14793">
        <ele>620</ele>
        <time>2015-09-22T09:29:43Z</time>
      </trkpt>
      <trkpt lat="42.34532" lon="0.14789">
        <ele>620.6</ele>
        <time>2015-09-22T09:29:45Z</time>
      </trkpt>
      <trkpt lat="42.34532" lon="0.14784">
        <ele>621.3</ele>
        <time>2015-09-22T09:29:47Z</time>
      </trkpt>
      <trkpt lat="42.3453" lon="0.1478">
        <ele>621.9</ele>
        <time>2015-09-22T09:29:49Z</time>
      </trkpt>
      <trkpt lat="42.3453" lon="0.14775">
        <ele>622.6</ele>
        <time>2015-09-22T09:29:51Z</time>
      </trkpt>
      <trkpt lat="42.3453" lon="0.1477">
        <ele>623.5</ele>
        <time>2015-09-22T09:29:53Z</time>
      </trkpt>
      <trkpt lat="42.3453" lon="0.14765">
        <ele>624.3</ele>
        <time>2015-09-22T09:29:55Z</time>
      </trkpt>
      <trkpt lat="42.34529" lon="0.1476">
        <ele>625.1</ele>
        <time>2015-09-22T09:29:57Z</time>
      </trkpt>
      <trkpt lat="42.3453" lon="0.14754">
        <ele>625.9</ele>
        <time>2015-09-22T09:29:59Z</time>
      </trkpt>
      <trkpt lat="42.34529" lon="0.14749">
        <ele>626.7</ele>
        <time>2015-09-22T09:30:01Z</time>
      </trkpt>
      <trkpt lat="42.34529" lon="0.14745">
        <ele>627.4</ele>
        <time>2015-09-22T09:30:03Z</time>
      </trkpt>
      <trkpt lat="42.34528" lon="0.1474">
        <ele>628.1</ele>
        <time>2015-09-22T09:30:05Z</time>
      </trkpt>
      <trkpt lat="42.34528" lon="0.14735">
        <ele>628.9</ele>
        <time>2015-09-22T09:30:07Z</time>
      </trkpt>
      <trkpt lat="42.34529" lon="0.14731">
        <ele>629.7</ele>
        <time>2015-09-22T09:30:09Z</time>
      </trkpt>
      <trkpt lat="42.34529" lon="0.14726">
        <ele>630.5</ele>
        <time>2015-09-22T09:30:11Z</time>
      </trkpt>
      <trkpt lat="42.34529" lon="0.14721">
        <ele>631.2</ele>
        <time>2015-09-22T09:30:13Z</time>
      </trkpt>
      <trkpt lat="42.34528" lon="0.14717">
        <ele>631.8</ele>
        <time>2015-09-22T09:30:15Z</time>
      </trkpt>
      <trkpt lat="42.34527" lon="0.14712">
        <ele>632.4</ele>
        <time>2015-09-22T09:30:17Z</time>
      </trkpt>
      <trkpt lat="42.34526" lon="0.14708">
        <ele>632.9</ele>
        <time>2015-09-22T09:30:19Z</time>
      </trkpt>
      <trkpt lat="42.34524" lon="0.14703">
        <ele>633.2</ele>
        <time>2015-09-22T09:30:21Z</time>
      </trkpt>
      <trkpt lat="42.34522" lon="0.14699">
        <ele>633.4</ele>
        <time>2015-09-22T09:30:23Z</time>
      </trkpt>
      <trkpt lat="42.34521" lon="0.14695">
        <ele>633.7</ele>
        <time>2015-09-22T09:30:25Z</time>
      </trkpt>
      <trkpt lat="42.3452" lon="0.1469">
        <ele>634.1</ele>
        <time>2015-09-22T09:30:27Z</time>
      </trkpt>
      <trkpt lat="42.34519" lon="0.14685">
        <ele>634.5</ele>
        <time>2015-09-22T09:30:29Z</time>
      </trkpt>
      <trkpt lat="42.34518" lon="0.14681">
        <ele>634.8</ele>
        <time>2015-09-22T09:30:31Z</time>
      </trkpt>
      <trkpt lat="42.34517" lon="0.14676">
        <ele>635.3</ele>
        <time>2015-09-22T09:30:33Z</time>
      </trkpt>
      <trkpt lat="42.34517" lon="0.14671">
        <ele>635.7</ele>
        <time>2015-09-22T09:30:35Z</time>
      </trkpt>
      <trkpt lat="42.34516" lon="0.14667">
        <ele>636.1</ele>
        <time>2015-09-22T09:30:37Z</time>
      </trkpt>
      <trkpt lat="42.34516" lon="0.14663">
        <ele>636.6</ele>
        <time>2015-09-22T09:30:39Z</time>
      </trkpt>
      <trkpt lat="42.34516" lon="0.14657">
        <ele>637.1</ele>
        <time>2015-09-22T09:30:42Z</time>
      </trkpt>
      <trkpt lat="42.34515" lon="0.14652">
        <ele>637.6</ele>
        <time>2015-09-22T09:30:45Z</time>
      </trkpt>
      <trkpt lat="42.34514" lon="0.14648">
        <ele>637.9</ele>
        <time>2015-09-22T09:30:47Z</time>
      </trkpt>
      <trkpt lat="42.34514" lon="0.14644">
        <ele>638.3</ele>
        <time>2015-09-22T09:30:49Z</time>
      </trkpt>
      <trkpt lat="42.34513" lon="0.1464">
        <ele>638.6</ele>
        <time>2015-09-22T09:30:51Z</time>
      </trkpt>
      <trkpt lat="42.34514" lon="0.14636">
        <ele>639.1</ele>
        <time>2015-09-22T09:30:53Z</time>
      </trkpt>
      <trkpt lat="42.34514" lon="0.14631">
        <ele>639.7</ele>
        <time>2015-09-22T09:30:55Z</time>
      </trkpt>
      <trkpt lat="42.34513" lon="0.14627">
        <ele>640</ele>
        <time>2015-09-22T09:30:57Z</time>
      </trkpt>
      <trkpt lat="42.34513" lon="0.14623">
        <ele>640.4</ele>
        <time>2015-09-22T09:30:59Z</time>
      </trkpt>
      <trkpt lat="42.34512" lon="0.14619">
        <ele>640.6</ele>
        <time>2015-09-22T09:31:01Z</time>
      </trkpt>
      <trkpt lat="42.34511" lon="0.14616">
        <ele>640.9</ele>
        <time>2015-09-22T09:31:03Z</time>
      </trkpt>
      <trkpt lat="42.3451" lon="0.14612">
        <ele>641</ele>
        <time>2015-09-22T09:31:05Z</time>
      </trkpt>
      <trkpt lat="42.34508" lon="0.14609">
        <ele>641.2</ele>
        <time>2015-09-22T09:31:07Z</time>
      </trkpt>
      <trkpt lat="42.34507" lon="0.14605">
        <ele>641.3</ele>
        <time>2015-09-22T09:31:09Z</time>
      </trkpt>
      <trkpt lat="42.34505" lon="0.14602">
        <ele>641.4</ele>
        <time>2015-09-22T09:31:11Z</time>
      </trkpt>
      <trkpt lat="42.34504" lon="0.14598">
        <ele>641.7</ele>
        <time>2015-09-22T09:31:13Z</time>
      </trkpt>
      <trkpt lat="42.34503" lon="0.14594">
        <ele>641.9</ele>
        <time>2015-09-22T09:31:15Z</time>
      </trkpt>
      <trkpt lat="42.34502" lon="0.1459">
        <ele>642.1</ele>
        <time>2015-09-22T09:31:17Z</time>
      </trkpt>
      <trkpt lat="42.34501" lon="0.14586">
        <ele>642.3</ele>
        <time>2015-09-22T09:31:19Z</time>
      </trkpt>
      <trkpt lat="42.34499" lon="0.14582">
        <ele>642.6</ele>
        <time>2015-09-22T09:31:21Z</time>
      </trkpt>
      <trkpt lat="42.34498" lon="0.14577">
        <ele>642.9</ele>
        <time>2015-09-22T09:31:23Z</time>
      </trkpt>
      <trkpt lat="42.34498" lon="0.14572">
        <ele>643.3</ele>
        <time>2015-09-22T09:31:25Z</time>
      </trkpt>
      <trkpt lat="42.345" lon="0.14567">
        <ele>644</ele>
        <time>2015-09-22T09:31:27Z</time>
      </trkpt>
      <trkpt lat="42.34503" lon="0.14561">
        <ele>645</ele>
        <time>2015-09-22T09:31:29Z</time>
      </trkpt>
      <trkpt lat="42.34506" lon="0.14557">
        <ele>645.9</ele>
        <time>2015-09-22T09:31:31Z</time>
      </trkpt>
      <trkpt lat="42.34508" lon="0.14552">
        <ele>646.7</ele>
        <time>2015-09-22T09:31:33Z</time>
      </trkpt>
      <trkpt lat="42.3451" lon="0.14547">
        <ele>647.3</ele>
        <time>2015-09-22T09:31:35Z</time>
      </trkpt>
      <trkpt lat="42.34511" lon="0.14542">
        <ele>647.9</ele>
        <time>2015-09-22T09:31:37Z</time>
      </trkpt>
      <trkpt lat="42.34512" lon="0.14537">
        <ele>648.6</ele>
        <time>2015-09-22T09:31:39Z</time>
      </trkpt>
      <trkpt lat="42.34513" lon="0.14533">
        <ele>649.4</ele>
        <time>2015-09-22T09:31:41Z</time>
      </trkpt>
      <trkpt lat="42.34514" lon="0.14528">
        <ele>650.2</ele>
        <time>2015-09-22T09:31:43Z</time>
      </trkpt>
      <trkpt lat="42.34514" lon="0.14523">
        <ele>650.8</ele>
        <time>2015-09-22T09:31:45Z</time>
      </trkpt>
      <trkpt lat="42.34514" lon="0.14519">
        <ele>651.3</ele>
        <time>2015-09-22T09:31:47Z</time>
      </trkpt>
      <trkpt lat="42.34514" lon="0.14515">
        <ele>651.9</ele>
        <time>2015-09-22T09:31:49Z</time>
      </trkpt>
      <trkpt lat="42.34514" lon="0.1451">
        <ele>652.5</ele>
        <time>2015-09-22T09:31:51Z</time>
      </trkpt>
      <trkpt lat="42.34513" lon="0.14506">
        <ele>653</ele>
        <time>2015-09-22T09:31:53Z</time>
      </trkpt>
      <trkpt lat="42.34512" lon="0.14502">
        <ele>653.3</ele>
        <time>2015-09-22T09:31:55Z</time>
      </trkpt>
      <trkpt lat="42.34512" lon="0.14497">
        <ele>654</ele>
        <time>2015-09-22T09:31:58Z</time>
      </trkpt>
      <trkpt lat="42.34513" lon="0.14493">
        <ele>654.5</ele>
        <time>2015-09-22T09:32:00Z</time>
      </trkpt>
      <trkpt lat="42.34512" lon="0.14488">
        <ele>655.1</ele>
        <time>2015-09-22T09:32:03Z</time>
      </trkpt>
      <trkpt lat="42.34512" lon="0.14484">
        <ele>655.7</ele>
        <time>2015-09-22T09:32:05Z</time>
      </trkpt>
      <trkpt lat="42.34512" lon="0.14479">
        <ele>656.3</ele>
        <time>2015-09-22T09:32:08Z</time>
      </trkpt>
      <trkpt lat="42.3451" lon="0.14475">
        <ele>656.7</ele>
        <time>2015-09-22T09:32:11Z</time>
      </trkpt>
      <trkpt lat="42.34509" lon="0.14471">
        <ele>657</ele>
        <time>2015-09-22T09:32:13Z</time>
      </trkpt>
      <trkpt lat="42.34508" lon="0.14468">
        <ele>657.2</ele>
        <time>2015-09-22T09:32:15Z</time>
      </trkpt>
      <trkpt lat="42.34507" lon="0.14464">
        <ele>657.6</ele>
        <time>2015-09-22T09:32:17Z</time>
      </trkpt>
      <trkpt lat="42.34505" lon="0.1446">
        <ele>657.9</ele>
        <time>2015-09-22T09:32:20Z</time>
      </trkpt>
      <trkpt lat="42.34501" lon="0.14458">
        <ele>657.7</ele>
        <time>2015-09-22T09:32:23Z</time>
      </trkpt>
      <trkpt lat="42.34497" lon="0.14456">
        <ele>657.7</ele>
        <time>2015-09-22T09:32:26Z</time>
      </trkpt>
      <trkpt lat="42.34495" lon="0.14454">
        <ele>657.9</ele>
        <time>2015-09-22T09:32:28Z</time>
      </trkpt>
      <trkpt lat="42.34493" lon="0.14452">
        <ele>658.1</ele>
        <time>2015-09-22T09:32:30Z</time>
      </trkpt>
      <trkpt lat="42.34491" lon="0.14449">
        <ele>658.7</ele>
        <time>2015-09-22T09:32:32Z</time>
      </trkpt>
      <trkpt lat="42.34489" lon="0.14445">
        <ele>659.5</ele>
        <time>2015-09-22T09:32:34Z</time>
      </trkpt>
      <trkpt lat="42.34489" lon="0.14438">
        <ele>661</ele>
        <time>2015-09-22T09:32:36Z</time>
      </trkpt>
      <trkpt lat="42.34488" lon="0.14432">
        <ele>662.6</ele>
        <time>2015-09-22T09:32:38Z</time>
      </trkpt>
      <trkpt lat="42.34487" lon="0.14427">
        <ele>663.7</ele>
        <time>2015-09-22T09:32:40Z</time>
      </trkpt>
      <trkpt lat="42.34485" lon="0.14422">
        <ele>664.7</ele>
        <time>2015-09-22T09:32:42Z</time>
      </trkpt>
      <trkpt lat="42.34483" lon="0.14418">
        <ele>665.6</ele>
        <time>2015-09-22T09:32:44Z</time>
      </trkpt>
      <trkpt lat="42.34481" lon="0.14414">
        <ele>666.4</ele>
        <time>2015-09-22T09:32:46Z</time>
      </trkpt>
      <trkpt lat="42.34479" lon="0.1441">
        <ele>667.2</ele>
        <time>2015-09-22T09:32:48Z</time>
      </trkpt>
      <trkpt lat="42.34478" lon="0.14405">
        <ele>668.1</ele>
        <time>2015-09-22T09:32:50Z</time>
      </trkpt>
      <trkpt lat="42.34477" lon="0.14401">
        <ele>669.2</ele>
        <time>2015-09-22T09:32:52Z</time>
      </trkpt>
      <trkpt lat="42.34477" lon="0.14397">
        <ele>670.2</ele>
        <time>2015-09-22T09:32:54Z</time>
      </trkpt>
      <trkpt lat="42.34476" lon="0.14393">
        <ele>671.1</ele>
        <time>2015-09-22T09:32:56Z</time>
      </trkpt>
      <trkpt lat="42.34473" lon="0.1439">
        <ele>671.6</ele>
        <time>2015-09-22T09:32:58Z</time>
      </trkpt>
      <trkpt lat="42.3447" lon="0.14388">
        <ele>671.8</ele>
        <time>2015-09-22T09:33:00Z</time>
      </trkpt>
      <trkpt lat="42.34466" lon="0.14386">
        <ele>671.9</ele>
        <time>2015-09-22T09:33:02Z</time>
      </trkpt>
      <trkpt lat="42.34463" lon="0.14384">
        <ele>672.1</ele>
        <time>2015-09-22T09:33:04Z</time>
      </trkpt>
      <trkpt lat="42.3446" lon="0.14381">
        <ele>672.7</ele>
        <time>2015-09-22T09:33:06Z</time>
      </trkpt>
      <trkpt lat="42.34457" lon="0.14378">
        <ele>673.2</ele>
        <time>2015-09-22T09:33:08Z</time>
      </trkpt>
      <trkpt lat="42.34454" lon="0.14375">
        <ele>673.7</ele>
        <time>2015-09-22T09:33:10Z</time>
      </trkpt>
      <trkpt lat="42.34451" lon="0.14373">
        <ele>673.8</ele>
        <time>2015-09-22T09:33:12Z</time>
      </trkpt>
      <trkpt lat="42.34448" lon="0.14371">
        <ele>673.8</ele>
        <time>2015-09-22T09:33:14Z</time>
      </trkpt>
      <trkpt lat="42.34445" lon="0.1437">
        <ele>673.8</ele>
        <time>2015-09-22T09:33:16Z</time>
      </trkpt>
      <trkpt lat="42.34441" lon="0.1437">
        <ele>673.4</ele>
        <time>2015-09-22T09:33:18Z</time>
      </trkpt>
      <trkpt lat="42.34438" lon="0.14371">
        <ele>673</ele>
        <time>2015-09-22T09:33:20Z</time>
      </trkpt>
      <trkpt lat="42.34434" lon="0.14371">
        <ele>672.5</ele>
        <time>2015-09-22T09:33:22Z</time>
      </trkpt>
      <trkpt lat="42.3443" lon="0.14371">
        <ele>672.1</ele>
        <time>2015-09-22T09:33:24Z</time>
      </trkpt>
      <trkpt lat="42.34425" lon="0.14371">
        <ele>671.8</ele>
        <time>2015-09-22T09:33:26Z</time>
      </trkpt>
      <trkpt lat="42.34422" lon="0.1437">
        <ele>671.7</ele>
        <time>2015-09-22T09:33:27Z</time>
      </trkpt>
      <trkpt lat="42.34419" lon="0.14369">
        <ele>671.6</ele>
        <time>2015-09-22T09:33:28Z</time>
      </trkpt>
      <trkpt lat="42.34416" lon="0.14369">
        <ele>671.4</ele>
        <time>2015-09-22T09:33:29Z</time>
      </trkpt>
      <trkpt lat="42.34413" lon="0.14368">
        <ele>671.3</ele>
        <time>2015-09-22T09:33:30Z</time>
      </trkpt>
      <trkpt lat="42.3441" lon="0.14367">
        <ele>671.3</ele>
        <time>2015-09-22T09:33:31Z</time>
      </trkpt>
      <trkpt lat="42.34408" lon="0.14365">
        <ele>671.4</ele>
        <time>2015-09-22T09:33:32Z</time>
      </trkpt>
      <trkpt lat="42.34405" lon="0.14364">
        <ele>671.5</ele>
        <time>2015-09-22T09:33:33Z</time>
      </trkpt>
      <trkpt lat="42.34402" lon="0.14362">
        <ele>671.7</ele>
        <time>2015-09-22T09:33:34Z</time>
      </trkpt>
      <trkpt lat="42.344" lon="0.1436">
        <ele>672</ele>
        <time>2015-09-22T09:33:35Z</time>
      </trkpt>
      <trkpt lat="42.34396" lon="0.14357">
        <ele>672.2</ele>
        <time>2015-09-22T09:33:37Z</time>
      </trkpt>
      <trkpt lat="42.34392" lon="0.14356">
        <ele>672.2</ele>
        <time>2015-09-22T09:33:39Z</time>
      </trkpt>
      <trkpt lat="42.34389" lon="0.14353">
        <ele>672.5</ele>
        <time>2015-09-22T09:33:41Z</time>
      </trkpt>
      <trkpt lat="42.34386" lon="0.14349">
        <ele>673.3</ele>
        <time>2015-09-22T09:33:43Z</time>
      </trkpt>
      <trkpt lat="42.34385" lon="0.14343">
        <ele>674.7</ele>
        <time>2015-09-22T09:33:45Z</time>
      </trkpt>
      <trkpt lat="42.34384" lon="0.14337">
        <ele>676</ele>
        <time>2015-09-22T09:33:47Z</time>
      </trkpt>
      <trkpt lat="42.34381" lon="0.14331">
        <ele>677.2</ele>
        <time>2015-09-22T09:33:49Z</time>
      </trkpt>
      <trkpt lat="42.34379" lon="0.14325">
        <ele>678.3</ele>
        <time>2015-09-22T09:33:51Z</time>
      </trkpt>
      <trkpt lat="42.34376" lon="0.14319">
        <ele>679.5</ele>
        <time>2015-09-22T09:33:53Z</time>
      </trkpt>
      <trkpt lat="42.34375" lon="0.14313">
        <ele>680.9</ele>
        <time>2015-09-22T09:33:55Z</time>
      </trkpt>
      <trkpt lat="42.34373" lon="0.14307">
        <ele>682.9</ele>
        <time>2015-09-22T09:33:57Z</time>
      </trkpt>
      <trkpt lat="42.34371" lon="0.14301">
        <ele>684.8</ele>
        <time>2015-09-22T09:33:59Z</time>
      </trkpt>
      <trkpt lat="42.3437" lon="0.14295">
        <ele>686.5</ele>
        <time>2015-09-22T09:34:01Z</time>
      </trkpt>
      <trkpt lat="42.34368" lon="0.1429">
        <ele>688.4</ele>
        <time>2015-09-22T09:34:03Z</time>
      </trkpt>
      <trkpt lat="42.34367" lon="0.14284">
        <ele>690.6</ele>
        <time>2015-09-22T09:34:05Z</time>
      </trkpt>
      <trkpt lat="42.34366" lon="0.14278">
        <ele>692.9</ele>
        <time>2015-09-22T09:34:07Z</time>
      </trkpt>
      <trkpt lat="42.34364" lon="0.14272">
        <ele>695.2</ele>
        <time>2015-09-22T09:34:09Z</time>
      </trkpt>
      <trkpt lat="42.34363" lon="0.14267">
        <ele>697</ele>
        <time>2015-09-22T09:34:10Z</time>
      </trkpt>
      <trkpt lat="42.34362" lon="0.14262">
        <ele>699</ele>
        <time>2015-09-22T09:34:11Z</time>
      </trkpt>
      <trkpt lat="42.3436" lon="0.14256">
        <ele>701.1</ele>
        <time>2015-09-22T09:34:12Z</time>
      </trkpt>
      <trkpt lat="42.3436" lon="0.14249">
        <ele>703.3</ele>
        <time>2015-09-22T09:34:13Z</time>
      </trkpt>
      <trkpt lat="42.34357" lon="0.14243">
        <ele>705.5</ele>
        <time>2015-09-22T09:34:14Z</time>
      </trkpt>
      <trkpt lat="42.34354" lon="0.1424">
        <ele>706.8</ele>
        <time>2015-09-22T09:34:15Z</time>
      </trkpt>
      <trkpt lat="42.34351" lon="0.1424">
        <ele>707.4</ele>
        <time>2015-09-22T09:34:16Z</time>
      </trkpt>
      <trkpt lat="42.34348" lon="0.1424">
        <ele>707.8</ele>
        <time>2015-09-22T09:34:17Z</time>
      </trkpt>
      <trkpt lat="42.34345" lon="0.14242">
        <ele>707.8</ele>
        <time>2015-09-22T09:34:19Z</time>
      </trkpt>
      <trkpt lat="42.34341" lon="0.14246">
        <ele>707.2</ele>
        <time>2015-09-22T09:34:21Z</time>
      </trkpt>
      <trkpt lat="42.34338" lon="0.1425">
        <ele>706.5</ele>
        <time>2015-09-22T09:34:23Z</time>
      </trkpt>
      <trkpt lat="42.34336" lon="0.14255">
        <ele>705.6</ele>
        <time>2015-09-22T09:34:25Z</time>
      </trkpt>
      <trkpt lat="42.34333" lon="0.14258">
        <ele>705.1</ele>
        <time>2015-09-22T09:34:27Z</time>
      </trkpt>
      <trkpt lat="42.3433" lon="0.14261">
        <ele>705.2</ele>
        <time>2015-09-22T09:34:29Z</time>
      </trkpt>
      <trkpt lat="42.34327" lon="0.14263">
        <ele>705.1</ele>
        <time>2015-09-22T09:34:31Z</time>
      </trkpt>
      <trkpt lat="42.34324" lon="0.14266">
        <ele>705.2</ele>
        <time>2015-09-22T09:34:33Z</time>
      </trkpt>
      <trkpt lat="42.34321" lon="0.14269">
        <ele>705.1</ele>
        <time>2015-09-22T09:34:35Z</time>
      </trkpt>
      <trkpt lat="42.34318" lon="0.14272">
        <ele>704.9</ele>
        <time>2015-09-22T09:34:37Z</time>
      </trkpt>
      <trkpt lat="42.34316" lon="0.14276">
        <ele>704.4</ele>
        <time>2015-09-22T09:34:39Z</time>
      </trkpt>
      <trkpt lat="42.34314" lon="0.14281">
        <ele>703.7</ele>
        <time>2015-09-22T09:34:41Z</time>
      </trkpt>
      <trkpt lat="42.34312" lon="0.14286">
        <ele>703</ele>
        <time>2015-09-22T09:34:43Z</time>
      </trkpt>
      <trkpt lat="42.3431" lon="0.14291">
        <ele>702.7</ele>
        <time>2015-09-22T09:34:45Z</time>
      </trkpt>
      <trkpt lat="42.34307" lon="0.14294">
        <ele>702.8</ele>
        <time>2015-09-22T09:34:47Z</time>
      </trkpt>
      <trkpt lat="42.34303" lon="0.14297">
        <ele>703.3</ele>
        <time>2015-09-22T09:34:49Z</time>
      </trkpt>
      <trkpt lat="42.343" lon="0.14298">
        <ele>704</ele>
        <time>2015-09-22T09:34:51Z</time>
      </trkpt>
      <trkpt lat="42.34296" lon="0.14299">
        <ele>704.8</ele>
        <time>2015-09-22T09:34:53Z</time>
      </trkpt>
      <trkpt lat="42.34293" lon="0.143">
        <ele>705.5</ele>
        <time>2015-09-22T09:34:55Z</time>
      </trkpt>
      <trkpt lat="42.3429" lon="0.143">
        <ele>705.8</ele>
        <time>2015-09-22T09:34:57Z</time>
      </trkpt>
      <trkpt lat="42.34287" lon="0.143">
        <ele>705.9</ele>
        <time>2015-09-22T09:34:59Z</time>
      </trkpt>
      <trkpt lat="42.34283" lon="0.143">
        <ele>705.8</ele>
        <time>2015-09-22T09:35:01Z</time>
      </trkpt>
      <trkpt lat="42.3428" lon="0.14303">
        <ele>705.5</ele>
        <time>2015-09-22T09:35:03Z</time>
      </trkpt>
      <trkpt lat="42.34278" lon="0.14307">
        <ele>705</ele>
        <time>2015-09-22T09:35:05Z</time>
      </trkpt>
      <trkpt lat="42.34277" lon="0.14312">
        <ele>704.3</ele>
        <time>2015-09-22T09:35:07Z</time>
      </trkpt>
      <trkpt lat="42.34279" lon="0.14318">
        <ele>703.6</ele>
        <time>2015-09-22T09:35:09Z</time>
      </trkpt>
      <trkpt lat="42.34279" lon="0.14323">
        <ele>702.8</ele>
        <time>2015-09-22T09:35:11Z</time>
      </trkpt>
      <trkpt lat="42.34278" lon="0.14328">
        <ele>702.2</ele>
        <time>2015-09-22T09:35:13Z</time>
      </trkpt>
      <trkpt lat="42.34276" lon="0.14333">
        <ele>701.7</ele>
        <time>2015-09-22T09:35:15Z</time>
      </trkpt>
      <trkpt lat="42.34274" lon="0.14337">
        <ele>701.2</ele>
        <time>2015-09-22T09:35:17Z</time>
      </trkpt>
      <trkpt lat="42.34273" lon="0.14342">
        <ele>700.6</ele>
        <time>2015-09-22T09:35:19Z</time>
      </trkpt>
      <trkpt lat="42.34271" lon="0.14346">
        <ele>700.2</ele>
        <time>2015-09-22T09:35:21Z</time>
      </trkpt>
      <trkpt lat="42.34268" lon="0.1435">
        <ele>699.8</ele>
        <time>2015-09-22T09:35:23Z</time>
      </trkpt>
      <trkpt lat="42.34266" lon="0.14353">
        <ele>699.5</ele>
        <time>2015-09-22T09:35:25Z</time>
      </trkpt>
      <trkpt lat="42.34264" lon="0.14357">
        <ele>699.2</ele>
        <time>2015-09-22T09:35:28Z</time>
      </trkpt>
      <trkpt lat="42.34261" lon="0.14361">
        <ele>698.9</ele>
        <time>2015-09-22T09:35:31Z</time>
      </trkpt>
      <trkpt lat="42.34259" lon="0.14365">
        <ele>698.5</ele>
        <time>2015-09-22T09:35:34Z</time>
      </trkpt>
      <trkpt lat="42.34258" lon="0.14368">
        <ele>698.2</ele>
        <time>2015-09-22T09:35:36Z</time>
      </trkpt>
      <trkpt lat="42.34256" lon="0.14371">
        <ele>698</ele>
        <time>2015-09-22T09:35:38Z</time>
      </trkpt>
      <trkpt lat="42.34253" lon="0.14373">
        <ele>698</ele>
        <time>2015-09-22T09:35:40Z</time>
      </trkpt>
      <trkpt lat="42.34251" lon="0.14375">
        <ele>698</ele>
        <time>2015-09-22T09:35:42Z</time>
      </trkpt>
      <trkpt lat="42.34248" lon="0.14376">
        <ele>698.1</ele>
        <time>2015-09-22T09:35:44Z</time>
      </trkpt>
      <trkpt lat="42.34245" lon="0.14376">
        <ele>698.3</ele>
        <time>2015-09-22T09:35:46Z</time>
      </trkpt>
      <trkpt lat="42.34242" lon="0.14377">
        <ele>698.5</ele>
        <time>2015-09-22T09:35:52Z</time>
      </trkpt>
      <trkpt lat="42.34239" lon="0.14379">
        <ele>698.6</ele>
        <time>2015-09-22T09:35:56Z</time>
      </trkpt>
      <trkpt lat="42.34236" lon="0.14379">
        <ele>698.8</ele>
        <time>2015-09-22T09:36:00Z</time>
      </trkpt>
      <trkpt lat="42.34233" lon="0.14381">
        <ele>699</ele>
        <time>2015-09-22T09:36:04Z</time>
      </trkpt>
      <trkpt lat="42.3423" lon="0.14382">
        <ele>699.1</ele>
        <time>2015-09-22T09:36:10Z</time>
      </trkpt>
      <trkpt lat="42.34226" lon="0.14383">
        <ele>699.4</ele>
        <time>2015-09-22T09:36:13Z</time>
      </trkpt>
      <trkpt lat="42.34224" lon="0.14384">
        <ele>699.6</ele>
        <time>2015-09-22T09:36:15Z</time>
      </trkpt>
      <trkpt lat="42.34221" lon="0.14385">
        <ele>699.8</ele>
        <time>2015-09-22T09:36:17Z</time>
      </trkpt>
      <trkpt lat="42.34218" lon="0.14386">
        <ele>700</ele>
        <time>2015-09-22T09:36:19Z</time>
      </trkpt>
      <trkpt lat="42.34215" lon="0.14387">
        <ele>700.1</ele>
        <time>2015-09-22T09:36:21Z</time>
      </trkpt>
      <trkpt lat="42.34212" lon="0.14388">
        <ele>700.3</ele>
        <time>2015-09-22T09:36:23Z</time>
      </trkpt>
      <trkpt lat="42.34209" lon="0.14389">
        <ele>700.6</ele>
        <time>2015-09-22T09:36:25Z</time>
      </trkpt>
      <trkpt lat="42.34205" lon="0.14391">
        <ele>700.1</ele>
        <time>2015-09-22T09:36:27Z</time>
      </trkpt>
      <trkpt lat="42.34201" lon="0.14395">
        <ele>699.5</ele>
        <time>2015-09-22T09:36:29Z</time>
      </trkpt>
      <trkpt lat="42.34199" lon="0.144">
        <ele>699</ele>
        <time>2015-09-22T09:36:31Z</time>
      </trkpt>
      <trkpt lat="42.34197" lon="0.14405">
        <ele>698.5</ele>
        <time>2015-09-22T09:36:33Z</time>
      </trkpt>
      <trkpt lat="42.34195" lon="0.14411">
        <ele>698.2</ele>
        <time>2015-09-22T09:36:35Z</time>
      </trkpt>
      <trkpt lat="42.34193" lon="0.14416">
        <ele>697.8</ele>
        <time>2015-09-22T09:36:37Z</time>
      </trkpt>
      <trkpt lat="42.3419" lon="0.14419">
        <ele>697.3</ele>
        <time>2015-09-22T09:36:39Z</time>
      </trkpt>
      <trkpt lat="42.34187" lon="0.14417">
        <ele>696.8</ele>
        <time>2015-09-22T09:36:42Z</time>
      </trkpt>
      <trkpt lat="42.34185" lon="0.14413">
        <ele>696.6</ele>
        <time>2015-09-22T09:36:44Z</time>
      </trkpt>
      <trkpt lat="42.34183" lon="0.14408">
        <ele>696.4</ele>
        <time>2015-09-22T09:36:47Z</time>
      </trkpt>
      <trkpt lat="42.34182" lon="0.14402">
        <ele>696.5</ele>
        <time>2015-09-22T09:36:49Z</time>
      </trkpt>
      <trkpt lat="42.34184" lon="0.14395">
        <ele>696.9</ele>
        <time>2015-09-22T09:36:51Z</time>
      </trkpt>
      <trkpt lat="42.34185" lon="0.14389">
        <ele>697.3</ele>
        <time>2015-09-22T09:36:53Z</time>
      </trkpt>
      <trkpt lat="42.34186" lon="0.14383">
        <ele>697.6</ele>
        <time>2015-09-22T09:36:55Z</time>
      </trkpt>
      <trkpt lat="42.34187" lon="0.14378">
        <ele>697.8</ele>
        <time>2015-09-22T09:36:57Z</time>
      </trkpt>
      <trkpt lat="42.34187" lon="0.14373">
        <ele>698.1</ele>
        <time>2015-09-22T09:36:59Z</time>
      </trkpt>
      <trkpt lat="42.34188" lon="0.14369">
        <ele>698.5</ele>
        <time>2015-09-22T09:37:01Z</time>
      </trkpt>
      <trkpt lat="42.34189" lon="0.14365">
        <ele>698.9</ele>
        <time>2015-09-22T09:37:03Z</time>
      </trkpt>
      <trkpt lat="42.34191" lon="0.1436">
        <ele>699.5</ele>
        <time>2015-09-22T09:37:06Z</time>
      </trkpt>
      <trkpt lat="42.34194" lon="0.14357">
        <ele>700.1</ele>
        <time>2015-09-22T09:37:08Z</time>
      </trkpt>
      <trkpt lat="42.34196" lon="0.14353">
        <ele>700.8</ele>
        <time>2015-09-22T09:37:10Z</time>
      </trkpt>
      <trkpt lat="42.342" lon="0.14348">
        <ele>701.7</ele>
        <time>2015-09-22T09:37:12Z</time>
      </trkpt>
      <trkpt lat="42.34203" lon="0.14343">
        <ele>702.5</ele>
        <time>2015-09-22T09:37:14Z</time>
      </trkpt>
      <trkpt lat="42.34207" lon="0.14338">
        <ele>703.4</ele>
        <time>2015-09-22T09:37:16Z</time>
      </trkpt>
      <trkpt lat="42.3421" lon="0.14333">
        <ele>704</ele>
        <time>2015-09-22T09:37:18Z</time>
      </trkpt>
      <trkpt lat="42.34213" lon="0.14327">
        <ele>704.3</ele>
        <time>2015-09-22T09:37:20Z</time>
      </trkpt>
      <trkpt lat="42.34215" lon="0.14322">
        <ele>704.7</ele>
        <time>2015-09-22T09:37:22Z</time>
      </trkpt>
      <trkpt lat="42.34217" lon="0.14316">
        <ele>705.1</ele>
        <time>2015-09-22T09:37:24Z</time>
      </trkpt>
      <trkpt lat="42.34217" lon="0.14311">
        <ele>705.4</ele>
        <time>2015-09-22T09:37:26Z</time>
      </trkpt>
      <trkpt lat="42.34218" lon="0.14307">
        <ele>705.8</ele>
        <time>2015-09-22T09:37:28Z</time>
      </trkpt>
      <trkpt lat="42.34219" lon="0.14303">
        <ele>706.1</ele>
        <time>2015-09-22T09:37:30Z</time>
      </trkpt>
      <trkpt lat="42.3422" lon="0.14299">
        <ele>706.4</ele>
        <time>2015-09-22T09:37:32Z</time>
      </trkpt>
      <trkpt lat="42.34221" lon="0.14295">
        <ele>706.7</ele>
        <time>2015-09-22T09:37:34Z</time>
      </trkpt>
      <trkpt lat="42.34221" lon="0.14291">
        <ele>707</ele>
        <time>2015-09-22T09:37:36Z</time>
      </trkpt>
      <trkpt lat="42.34222" lon="0.14287">
        <ele>707.2</ele>
        <time>2015-09-22T09:37:38Z</time>
      </trkpt>
      <trkpt lat="42.34221" lon="0.14283">
        <ele>707.4</ele>
        <time>2015-09-22T09:37:40Z</time>
      </trkpt>
      <trkpt lat="42.34222" lon="0.14279">
        <ele>707.6</ele>
        <time>2015-09-22T09:37:42Z</time>
      </trkpt>
      <trkpt lat="42.34223" lon="0.14275">
        <ele>707.8</ele>
        <time>2015-09-22T09:37:44Z</time>
      </trkpt>
      <trkpt lat="42.34223" lon="0.14271">
        <ele>708</ele>
        <time>2015-09-22T09:37:46Z</time>
      </trkpt>
      <trkpt lat="42.34224" lon="0.14267">
        <ele>708.3</ele>
        <time>2015-09-22T09:37:48Z</time>
      </trkpt>
      <trkpt lat="42.34224" lon="0.14263">
        <ele>708.5</ele>
        <time>2015-09-22T09:37:50Z</time>
      </trkpt>
      <trkpt lat="42.34224" lon="0.14259">
        <ele>708.7</ele>
        <time>2015-09-22T09:37:52Z</time>
      </trkpt>
      <trkpt lat="42.34222" lon="0.14255">
        <ele>708.8</ele>
        <time>2015-09-22T09:37:54Z</time>
      </trkpt>
      <trkpt lat="42.34221" lon="0.14251">
        <ele>708.9</ele>
        <time>2015-09-22T09:37:56Z</time>
      </trkpt>
      <trkpt lat="42.34219" lon="0.14248">
        <ele>708.9</ele>
        <time>2015-09-22T09:37:58Z</time>
      </trkpt>
      <trkpt lat="42.34218" lon="0.14245">
        <ele>708.9</ele>
        <time>2015-09-22T09:38:00Z</time>
      </trkpt>
      <trkpt lat="42.34217" lon="0.14241">
        <ele>708.9</ele>
        <time>2015-09-22T09:38:02Z</time>
      </trkpt>
      <trkpt lat="42.34217" lon="0.14236">
        <ele>709.1</ele>
        <time>2015-09-22T09:38:04Z</time>
      </trkpt>
      <trkpt lat="42.34218" lon="0.14232">
        <ele>709.4</ele>
        <time>2015-09-22T09:38:06Z</time>
      </trkpt>
      <trkpt lat="42.3422" lon="0.14229">
        <ele>709.7</ele>
        <time>2015-09-22T09:38:08Z</time>
      </trkpt>
      <trkpt lat="42.34221" lon="0.14225">
        <ele>710.1</ele>
        <time>2015-09-22T09:38:10Z</time>
      </trkpt>
      <trkpt lat="42.34223" lon="0.14222">
        <ele>710.5</ele>
        <time>2015-09-22T09:38:12Z</time>
      </trkpt>
      <trkpt lat="42.34226" lon="0.1422">
        <ele>710.9</ele>
        <time>2015-09-22T09:38:14Z</time>
      </trkpt>
      <trkpt lat="42.34229" lon="0.14218">
        <ele>711.4</ele>
        <time>2015-09-22T09:38:16Z</time>
      </trkpt>
      <trkpt lat="42.34232" lon="0.14216">
        <ele>711.9</ele>
        <time>2015-09-22T09:38:18Z</time>
      </trkpt>
      <trkpt lat="42.34235" lon="0.14213">
        <ele>712.4</ele>
        <time>2015-09-22T09:38:20Z</time>
      </trkpt>
      <trkpt lat="42.34237" lon="0.1421">
        <ele>713</ele>
        <time>2015-09-22T09:38:22Z</time>
      </trkpt>
      <trkpt lat="42.34239" lon="0.14207">
        <ele>713.4</ele>
        <time>2015-09-22T09:38:24Z</time>
      </trkpt>
      <trkpt lat="42.3424" lon="0.14203">
        <ele>713.7</ele>
        <time>2015-09-22T09:38:26Z</time>
      </trkpt>
      <trkpt lat="42.34242" lon="0.14198">
        <ele>714.1</ele>
        <time>2015-09-22T09:38:28Z</time>
      </trkpt>
      <trkpt lat="42.34244" lon="0.14195">
        <ele>714.5</ele>
        <time>2015-09-22T09:38:30Z</time>
      </trkpt>
      <trkpt lat="42.34247" lon="0.14193">
        <ele>715</ele>
        <time>2015-09-22T09:38:32Z</time>
      </trkpt>
      <trkpt lat="42.34249" lon="0.1419">
        <ele>715.5</ele>
        <time>2015-09-22T09:38:34Z</time>
      </trkpt>
      <trkpt lat="42.34251" lon="0.14187">
        <ele>716</ele>
        <time>2015-09-22T09:38:36Z</time>
      </trkpt>
      <trkpt lat="42.34253" lon="0.14184">
        <ele>716.4</ele>
        <time>2015-09-22T09:38:38Z</time>
      </trkpt>
      <trkpt lat="42.34256" lon="0.1418">
        <ele>716.9</ele>
        <time>2015-09-22T09:38:40Z</time>
      </trkpt>
      <trkpt lat="42.34257" lon="0.14177">
        <ele>717.3</ele>
        <time>2015-09-22T09:38:42Z</time>
      </trkpt>
      <trkpt lat="42.34258" lon="0.14173">
        <ele>717.7</ele>
        <time>2015-09-22T09:38:44Z</time>
      </trkpt>
      <trkpt lat="42.34259" lon="0.14169">
        <ele>718</ele>
        <time>2015-09-22T09:38:46Z</time>
      </trkpt>
      <trkpt lat="42.34259" lon="0.14165">
        <ele>718.1</ele>
        <time>2015-09-22T09:38:48Z</time>
      </trkpt>
      <trkpt lat="42.34259" lon="0.14159">
        <ele>718.3</ele>
        <time>2015-09-22T09:38:50Z</time>
      </trkpt>
      <trkpt lat="42.34259" lon="0.14154">
        <ele>718.4</ele>
        <time>2015-09-22T09:38:51Z</time>
      </trkpt>
      <trkpt lat="42.34258" lon="0.14149">
        <ele>718.6</ele>
        <time>2015-09-22T09:38:52Z</time>
      </trkpt>
      <trkpt lat="42.34257" lon="0.14143">
        <ele>718.7</ele>
        <time>2015-09-22T09:38:53Z</time>
      </trkpt>
      <trkpt lat="42.34256" lon="0.14138">
        <ele>718.6</ele>
        <time>2015-09-22T09:38:54Z</time>
      </trkpt>
      <trkpt lat="42.34255" lon="0.14133">
        <ele>718.6</ele>
        <time>2015-09-22T09:38:55Z</time>
      </trkpt>
      <trkpt lat="42.34254" lon="0.14128">
        <ele>718.6</ele>
        <time>2015-09-22T09:38:56Z</time>
      </trkpt>
      <trkpt lat="42.34253" lon="0.14124">
        <ele>718.6</ele>
        <time>2015-09-22T09:38:57Z</time>
      </trkpt>
      <trkpt lat="42.34253" lon="0.1412">
        <ele>718.8</ele>
        <time>2015-09-22T09:38:58Z</time>
      </trkpt>
      <trkpt lat="42.34252" lon="0.14116">
        <ele>718.9</ele>
        <time>2015-09-22T09:38:59Z</time>
      </trkpt>
      <trkpt lat="42.34252" lon="0.14112">
        <ele>718.9</ele>
        <time>2015-09-22T09:39:00Z</time>
      </trkpt>
      <trkpt lat="42.3425" lon="0.14108">
        <ele>718.8</ele>
        <time>2015-09-22T09:39:01Z</time>
      </trkpt>
      <trkpt lat="42.34249" lon="0.14105">
        <ele>718.6</ele>
        <time>2015-09-22T09:39:02Z</time>
      </trkpt>
      <trkpt lat="42.34247" lon="0.14101">
        <ele>718.5</ele>
        <time>2015-09-22T09:39:03Z</time>
      </trkpt>
      <trkpt lat="42.34246" lon="0.14098">
        <ele>718.4</ele>
        <time>2015-09-22T09:39:04Z</time>
      </trkpt>
      <trkpt lat="42.34245" lon="0.14094">
        <ele>718.3</ele>
        <time>2015-09-22T09:39:05Z</time>
      </trkpt>
      <trkpt lat="42.34244" lon="0.1409">
        <ele>718.2</ele>
        <time>2015-09-22T09:39:06Z</time>
      </trkpt>
      <trkpt lat="42.34244" lon="0.14086">
        <ele>718.4</ele>
        <time>2015-09-22T09:39:07Z</time>
      </trkpt>
      <trkpt lat="42.34245" lon="0.14082">
        <ele>718.7</ele>
        <time>2015-09-22T09:39:08Z</time>
      </trkpt>
      <trkpt lat="42.34246" lon="0.14078">
        <ele>719.1</ele>
        <time>2015-09-22T09:39:09Z</time>
      </trkpt>
      <trkpt lat="42.34248" lon="0.14075">
        <ele>719.7</ele>
        <time>2015-09-22T09:39:10Z</time>
      </trkpt>
      <trkpt lat="42.3425" lon="0.14069">
        <ele>720.4</ele>
        <time>2015-09-22T09:39:11Z</time>
      </trkpt>
      <trkpt lat="42.34251" lon="0.14064">
        <ele>720.9</ele>
        <time>2015-09-22T09:39:12Z</time>
      </trkpt>
      <trkpt lat="42.34251" lon="0.14059">
        <ele>721</ele>
        <time>2015-09-22T09:39:13Z</time>
      </trkpt>
      <trkpt lat="42.3425" lon="0.14055">
        <ele>720.9</ele>
        <time>2015-09-22T09:39:14Z</time>
      </trkpt>
      <trkpt lat="42.34249" lon="0.14051">
        <ele>720.8</ele>
        <time>2015-09-22T09:39:15Z</time>
      </trkpt>
      <trkpt lat="42.34248" lon="0.14048">
        <ele>720.7</ele>
        <time>2015-09-22T09:39:16Z</time>
      </trkpt>
      <trkpt lat="42.34247" lon="0.14041">
        <ele>720.9</ele>
        <time>2015-09-22T09:39:18Z</time>
      </trkpt>
      <trkpt lat="42.34248" lon="0.14037">
        <ele>721.2</ele>
        <time>2015-09-22T09:39:19Z</time>
      </trkpt>
      <trkpt lat="42.34248" lon="0.14033">
        <ele>721.5</ele>
        <time>2015-09-22T09:39:20Z</time>
      </trkpt>
      <trkpt lat="42.34248" lon="0.14029">
        <ele>721.8</ele>
        <time>2015-09-22T09:39:21Z</time>
      </trkpt>
      <trkpt lat="42.34248" lon="0.14025">
        <ele>722.1</ele>
        <time>2015-09-22T09:39:22Z</time>
      </trkpt>
      <trkpt lat="42.34248" lon="0.14021">
        <ele>722.3</ele>
        <time>2015-09-22T09:39:23Z</time>
      </trkpt>
      <trkpt lat="42.34247" lon="0.14018">
        <ele>722.4</ele>
        <time>2015-09-22T09:39:24Z</time>
      </trkpt>
      <trkpt lat="42.34246" lon="0.14014">
        <ele>722.4</ele>
        <time>2015-09-22T09:39:25Z</time>
      </trkpt>
      <trkpt lat="42.34245" lon="0.14011">
        <ele>722.4</ele>
        <time>2015-09-22T09:39:26Z</time>
      </trkpt>
      <trkpt lat="42.34244" lon="0.14007">
        <ele>722.5</ele>
        <time>2015-09-22T09:39:27Z</time>
      </trkpt>
      <trkpt lat="42.34243" lon="0.14002">
        <ele>722.6</ele>
        <time>2015-09-22T09:39:29Z</time>
      </trkpt>
      <trkpt lat="42.3424" lon="0.13996">
        <ele>722.7</ele>
        <time>2015-09-22T09:39:31Z</time>
      </trkpt>
      <trkpt lat="42.34238" lon="0.13992">
        <ele>722.7</ele>
        <time>2015-09-22T09:39:32Z</time>
      </trkpt>
      <trkpt lat="42.34236" lon="0.13988">
        <ele>722.7</ele>
        <time>2015-09-22T09:39:33Z</time>
      </trkpt>
      <trkpt lat="42.34234" lon="0.13984">
        <ele>722.7</ele>
        <time>2015-09-22T09:39:34Z</time>
      </trkpt>
      <trkpt lat="42.34232" lon="0.1398">
        <ele>722.6</ele>
        <time>2015-09-22T09:39:35Z</time>
      </trkpt>
      <trkpt lat="42.34229" lon="0.13976">
        <ele>722.6</ele>
        <time>2015-09-22T09:39:36Z</time>
      </trkpt>
      <trkpt lat="42.34227" lon="0.13974">
        <ele>722.6</ele>
        <time>2015-09-22T09:39:37Z</time>
      </trkpt>
      <trkpt lat="42.34224" lon="0.1397">
        <ele>722.5</ele>
        <time>2015-09-22T09:39:38Z</time>
      </trkpt>
      <trkpt lat="42.34221" lon="0.1397">
        <ele>722.2</ele>
        <time>2015-09-22T09:39:39Z</time>
      </trkpt>
      <trkpt lat="42.34218" lon="0.13969">
        <ele>722</ele>
        <time>2015-09-22T09:39:40Z</time>
      </trkpt>
      <trkpt lat="42.34216" lon="0.13967">
        <ele>721.8</ele>
        <time>2015-09-22T09:39:41Z</time>
      </trkpt>
      <trkpt lat="42.34213" lon="0.13965">
        <ele>721.8</ele>
        <time>2015-09-22T09:39:42Z</time>
      </trkpt>
      <trkpt lat="42.34211" lon="0.13963">
        <ele>721.8</ele>
        <time>2015-09-22T09:39:43Z</time>
      </trkpt>
      <trkpt lat="42.34209" lon="0.1396">
        <ele>721.9</ele>
        <time>2015-09-22T09:39:44Z</time>
      </trkpt>
      <trkpt lat="42.34207" lon="0.13957">
        <ele>721.9</ele>
        <time>2015-09-22T09:39:45Z</time>
      </trkpt>
      <trkpt lat="42.34206" lon="0.13953">
        <ele>721.8</ele>
        <time>2015-09-22T09:39:46Z</time>
      </trkpt>
      <trkpt lat="42.34204" lon="0.1395">
        <ele>721.7</ele>
        <time>2015-09-22T09:39:47Z</time>
      </trkpt>
      <trkpt lat="42.34203" lon="0.13947">
        <ele>721.6</ele>
        <time>2015-09-22T09:39:48Z</time>
      </trkpt>
      <trkpt lat="42.34201" lon="0.13943">
        <ele>721.5</ele>
        <time>2015-09-22T09:39:49Z</time>
      </trkpt>
      <trkpt lat="42.342" lon="0.1394">
        <ele>721.4</ele>
        <time>2015-09-22T09:39:50Z</time>
      </trkpt>
      <trkpt lat="42.34198" lon="0.13934">
        <ele>721.2</ele>
        <time>2015-09-22T09:39:52Z</time>
      </trkpt>
      <trkpt lat="42.34197" lon="0.13929">
        <ele>721.1</ele>
        <time>2015-09-22T09:39:54Z</time>
      </trkpt>
      <trkpt lat="42.34199" lon="0.13924">
        <ele>721.1</ele>
        <time>2015-09-22T09:39:56Z</time>
      </trkpt>
      <trkpt lat="42.34202" lon="0.13919">
        <ele>721.2</ele>
        <time>2015-09-22T09:39:58Z</time>
      </trkpt>
      <trkpt lat="42.34206" lon="0.13916">
        <ele>721.4</ele>
        <time>2015-09-22T09:40:00Z</time>
      </trkpt>
      <trkpt lat="42.34209" lon="0.13913">
        <ele>721.5</ele>
        <time>2015-09-22T09:40:02Z</time>
      </trkpt>
      <trkpt lat="42.34213" lon="0.13909">
        <ele>721.8</ele>
        <time>2015-09-22T09:40:04Z</time>
      </trkpt>
      <trkpt lat="42.34216" lon="0.13906">
        <ele>722.1</ele>
        <time>2015-09-22T09:40:06Z</time>
      </trkpt>
      <trkpt lat="42.34219" lon="0.13903">
        <ele>722.4</ele>
        <time>2015-09-22T09:40:08Z</time>
      </trkpt>
      <trkpt lat="42.34223" lon="0.13901">
        <ele>722.7</ele>
        <time>2015-09-22T09:40:10Z</time>
      </trkpt>
      <trkpt lat="42.34226" lon="0.13897">
        <ele>723</ele>
        <time>2015-09-22T09:40:12Z</time>
      </trkpt>
      <trkpt lat="42.3423" lon="0.13893">
        <ele>723.3</ele>
        <time>2015-09-22T09:40:14Z</time>
      </trkpt>
      <trkpt lat="42.34232" lon="0.13891">
        <ele>723.5</ele>
        <time>2015-09-22T09:40:15Z</time>
      </trkpt>
      <trkpt lat="42.34234" lon="0.13889">
        <ele>723.7</ele>
        <time>2015-09-22T09:40:16Z</time>
      </trkpt>
      <trkpt lat="42.34237" lon="0.13887">
        <ele>723.9</ele>
        <time>2015-09-22T09:40:17Z</time>
      </trkpt>
      <trkpt lat="42.34242" lon="0.13886">
        <ele>724.4</ele>
        <time>2015-09-22T09:40:19Z</time>
      </trkpt>
      <trkpt lat="42.34246" lon="0.13885">
        <ele>724.8</ele>
        <time>2015-09-22T09:40:21Z</time>
      </trkpt>
      <trkpt lat="42.34249" lon="0.13888">
        <ele>725.2</ele>
        <time>2015-09-22T09:40:24Z</time>
      </trkpt>
      <trkpt lat="42.34252" lon="0.13891">
        <ele>725.4</ele>
        <time>2015-09-22T09:40:26Z</time>
      </trkpt>
      <trkpt lat="42.34254" lon="0.13895">
        <ele>725.7</ele>
        <time>2015-09-22T09:40:28Z</time>
      </trkpt>
      <trkpt lat="42.34255" lon="0.13899">
        <ele>725.9</ele>
        <time>2015-09-22T09:40:30Z</time>
      </trkpt>
      <trkpt lat="42.34256" lon="0.13904">
        <ele>726.1</ele>
        <time>2015-09-22T09:40:32Z</time>
      </trkpt>
      <trkpt lat="42.34257" lon="0.13908">
        <ele>726.3</ele>
        <time>2015-09-22T09:40:34Z</time>
      </trkpt>
      <trkpt lat="42.34259" lon="0.13912">
        <ele>726.6</ele>
        <time>2015-09-22T09:40:36Z</time>
      </trkpt>
      <trkpt lat="42.3426" lon="0.13917">
        <ele>726.8</ele>
        <time>2015-09-22T09:40:38Z</time>
      </trkpt>
      <trkpt lat="42.3426" lon="0.13922">
        <ele>726.9</ele>
        <time>2015-09-22T09:40:40Z</time>
      </trkpt>
      <trkpt lat="42.34262" lon="0.13926">
        <ele>727.1</ele>
        <time>2015-09-22T09:40:42Z</time>
      </trkpt>
      <trkpt lat="42.34265" lon="0.1393">
        <ele>727.5</ele>
        <time>2015-09-22T09:40:44Z</time>
      </trkpt>
      <trkpt lat="42.34267" lon="0.13934">
        <ele>727.8</ele>
        <time>2015-09-22T09:40:46Z</time>
      </trkpt>
      <trkpt lat="42.34268" lon="0.13939">
        <ele>728</ele>
        <time>2015-09-22T09:40:48Z</time>
      </trkpt>
      <trkpt lat="42.34269" lon="0.13943">
        <ele>728.2</ele>
        <time>2015-09-22T09:40:50Z</time>
      </trkpt>
      <trkpt lat="42.34271" lon="0.13948">
        <ele>728.5</ele>
        <time>2015-09-22T09:40:52Z</time>
      </trkpt>
      <trkpt lat="42.34274" lon="0.1395">
        <ele>728.9</ele>
        <time>2015-09-22T09:40:54Z</time>
      </trkpt>
      <trkpt lat="42.34277" lon="0.13949">
        <ele>729.2</ele>
        <time>2015-09-22T09:40:56Z</time>
      </trkpt>
      <trkpt lat="42.3428" lon="0.13947">
        <ele>729.5</ele>
        <time>2015-09-22T09:40:58Z</time>
      </trkpt>
      <trkpt lat="42.34283" lon="0.13945">
        <ele>729.8</ele>
        <time>2015-09-22T09:41:00Z</time>
      </trkpt>
      <trkpt lat="42.34286" lon="0.13942">
        <ele>730</ele>
        <time>2015-09-22T09:41:02Z</time>
      </trkpt>
      <trkpt lat="42.34289" lon="0.13942">
        <ele>730.3</ele>
        <time>2015-09-22T09:41:04Z</time>
      </trkpt>
      <trkpt lat="42.34292" lon="0.13943">
        <ele>730.7</ele>
        <time>2015-09-22T09:41:06Z</time>
      </trkpt>
      <trkpt lat="42.34295" lon="0.13945">
        <ele>731.2</ele>
        <time>2015-09-22T09:41:08Z</time>
      </trkpt>
      <trkpt lat="42.34298" lon="0.13945">
        <ele>731.7</ele>
        <time>2015-09-22T09:41:10Z</time>
      </trkpt>
      <trkpt lat="42.343" lon="0.13946">
        <ele>732.1</ele>
        <time>2015-09-22T09:41:12Z</time>
      </trkpt>
      <trkpt lat="42.34304" lon="0.13946">
        <ele>732.8</ele>
        <time>2015-09-22T09:41:15Z</time>
      </trkpt>
      <trkpt lat="42.34308" lon="0.13946">
        <ele>733.4</ele>
        <time>2015-09-22T09:41:19Z</time>
      </trkpt>
      <trkpt lat="42.34311" lon="0.13947">
        <ele>733.9</ele>
        <time>2015-09-22T09:41:22Z</time>
      </trkpt>
      <trkpt lat="42.34314" lon="0.13947">
        <ele>734.4</ele>
        <time>2015-09-22T09:41:25Z</time>
      </trkpt>
      <trkpt lat="42.34317" lon="0.13949">
        <ele>735</ele>
        <time>2015-09-22T09:41:28Z</time>
      </trkpt>
      <trkpt lat="42.3432" lon="0.13952">
        <ele>735.5</ele>
        <time>2015-09-22T09:41:31Z</time>
      </trkpt>
      <trkpt lat="42.34322" lon="0.13955">
        <ele>735.9</ele>
        <time>2015-09-22T09:41:33Z</time>
      </trkpt>
      <trkpt lat="42.34324" lon="0.13957">
        <ele>736.4</ele>
        <time>2015-09-22T09:41:35Z</time>
      </trkpt>
      <trkpt lat="42.34326" lon="0.13959">
        <ele>736.8</ele>
        <time>2015-09-22T09:41:37Z</time>
      </trkpt>
      <trkpt lat="42.34329" lon="0.13961">
        <ele>737.2</ele>
        <time>2015-09-22T09:41:39Z</time>
      </trkpt>
      <trkpt lat="42.34333" lon="0.13962">
        <ele>737.8</ele>
        <time>2015-09-22T09:41:42Z</time>
      </trkpt>
      <trkpt lat="42.34336" lon="0.13962">
        <ele>738.3</ele>
        <time>2015-09-22T09:41:44Z</time>
      </trkpt>
      <trkpt lat="42.34339" lon="0.13961">
        <ele>738.8</ele>
        <time>2015-09-22T09:41:46Z</time>
      </trkpt>
      <trkpt lat="42.34341" lon="0.13959">
        <ele>739.3</ele>
        <time>2015-09-22T09:41:48Z</time>
      </trkpt>
      <trkpt lat="42.34343" lon="0.13956">
        <ele>739.6</ele>
        <time>2015-09-22T09:41:50Z</time>
      </trkpt>
      <trkpt lat="42.34347" lon="0.13952">
        <ele>740</ele>
        <time>2015-09-22T09:41:52Z</time>
      </trkpt>
      <trkpt lat="42.3435" lon="0.13948">
        <ele>740.4</ele>
        <time>2015-09-22T09:41:54Z</time>
      </trkpt>
      <trkpt lat="42.34353" lon="0.13942">
        <ele>740.6</ele>
        <time>2015-09-22T09:41:56Z</time>
      </trkpt>
      <trkpt lat="42.34355" lon="0.13937">
        <ele>740.8</ele>
        <time>2015-09-22T09:41:58Z</time>
      </trkpt>
      <trkpt lat="42.34359" lon="0.13932">
        <ele>741.1</ele>
        <time>2015-09-22T09:42:00Z</time>
      </trkpt>
      <trkpt lat="42.34362" lon="0.13928">
        <ele>741.5</ele>
        <time>2015-09-22T09:42:02Z</time>
      </trkpt>
      <trkpt lat="42.34366" lon="0.13924">
        <ele>741.9</ele>
        <time>2015-09-22T09:42:04Z</time>
      </trkpt>
      <trkpt lat="42.34369" lon="0.13919">
        <ele>742.1</ele>
        <time>2015-09-22T09:42:06Z</time>
      </trkpt>
      <trkpt lat="42.34371" lon="0.13912">
        <ele>742.1</ele>
        <time>2015-09-22T09:42:08Z</time>
      </trkpt>
      <trkpt lat="42.34373" lon="0.13906">
        <ele>742.3</ele>
        <time>2015-09-22T09:42:10Z</time>
      </trkpt>
      <trkpt lat="42.34376" lon="0.13904">
        <ele>742.4</ele>
        <time>2015-09-22T09:42:11Z</time>
      </trkpt>
      <trkpt lat="42.34378" lon="0.13901">
        <ele>742.4</ele>
        <time>2015-09-22T09:42:12Z</time>
      </trkpt>
      <trkpt lat="42.3438" lon="0.13898">
        <ele>742.5</ele>
        <time>2015-09-22T09:42:13Z</time>
      </trkpt>
      <trkpt lat="42.34381" lon="0.13895">
        <ele>742.5</ele>
        <time>2015-09-22T09:42:14Z</time>
      </trkpt>
      <trkpt lat="42.34383" lon="0.13892">
        <ele>742.5</ele>
        <time>2015-09-22T09:42:15Z</time>
      </trkpt>
      <trkpt lat="42.34386" lon="0.13886">
        <ele>742.6</ele>
        <time>2015-09-22T09:42:17Z</time>
      </trkpt>
      <trkpt lat="42.3439" lon="0.13882">
        <ele>742.8</ele>
        <time>2015-09-22T09:42:19Z</time>
      </trkpt>
      <trkpt lat="42.34394" lon="0.13877">
        <ele>743.1</ele>
        <time>2015-09-22T09:42:21Z</time>
      </trkpt>
      <trkpt lat="42.34398" lon="0.13874">
        <ele>743.4</ele>
        <time>2015-09-22T09:42:23Z</time>
      </trkpt>
      <trkpt lat="42.34402" lon="0.13871">
        <ele>743.6</ele>
        <time>2015-09-22T09:42:25Z</time>
      </trkpt>
      <trkpt lat="42.34404" lon="0.13868">
        <ele>743.7</ele>
        <time>2015-09-22T09:42:27Z</time>
      </trkpt>
      <trkpt lat="42.34405" lon="0.13864">
        <ele>743.6</ele>
        <time>2015-09-22T09:42:29Z</time>
      </trkpt>
      <trkpt lat="42.34406" lon="0.13861">
        <ele>743.5</ele>
        <time>2015-09-22T09:42:31Z</time>
      </trkpt>
      <trkpt lat="42.34409" lon="0.13858">
        <ele>743.7</ele>
        <time>2015-09-22T09:42:33Z</time>
      </trkpt>
      <trkpt lat="42.34413" lon="0.13855">
        <ele>744</ele>
        <time>2015-09-22T09:42:35Z</time>
      </trkpt>
      <trkpt lat="42.34417" lon="0.13853">
        <ele>744.5</ele>
        <time>2015-09-22T09:42:37Z</time>
      </trkpt>
      <trkpt lat="42.34421" lon="0.13852">
        <ele>745</ele>
        <time>2015-09-22T09:42:39Z</time>
      </trkpt>
      <trkpt lat="42.34426" lon="0.1385">
        <ele>745.5</ele>
        <time>2015-09-22T09:42:41Z</time>
      </trkpt>
      <trkpt lat="42.3443" lon="0.13849">
        <ele>746</ele>
        <time>2015-09-22T09:42:43Z</time>
      </trkpt>
      <trkpt lat="42.34435" lon="0.13847">
        <ele>746.6</ele>
        <time>2015-09-22T09:42:45Z</time>
      </trkpt>
      <trkpt lat="42.34439" lon="0.13844">
        <ele>747.1</ele>
        <time>2015-09-22T09:42:47Z</time>
      </trkpt>
      <trkpt lat="42.34444" lon="0.13842">
        <ele>747.6</ele>
        <time>2015-09-22T09:42:49Z</time>
      </trkpt>
      <trkpt lat="42.34449" lon="0.13839">
        <ele>748.3</ele>
        <time>2015-09-22T09:42:51Z</time>
      </trkpt>
      <trkpt lat="42.34452" lon="0.13837">
        <ele>748.7</ele>
        <time>2015-09-22T09:42:52Z</time>
      </trkpt>
      <trkpt lat="42.34455" lon="0.13835">
        <ele>749</ele>
        <time>2015-09-22T09:42:53Z</time>
      </trkpt>
      <trkpt lat="42.34458" lon="0.1383">
        <ele>749.4</ele>
        <time>2015-09-22T09:42:55Z</time>
      </trkpt>
      <trkpt lat="42.34462" lon="0.13825">
        <ele>749.8</ele>
        <time>2015-09-22T09:42:57Z</time>
      </trkpt>
      <trkpt lat="42.34465" lon="0.13822">
        <ele>750.1</ele>
        <time>2015-09-22T09:42:59Z</time>
      </trkpt>
      <trkpt lat="42.34469" lon="0.13817">
        <ele>750.4</ele>
        <time>2015-09-22T09:43:01Z</time>
      </trkpt>
      <trkpt lat="42.34472" lon="0.13813">
        <ele>750.8</ele>
        <time>2015-09-22T09:43:03Z</time>
      </trkpt>
      <trkpt lat="42.34477" lon="0.13811">
        <ele>751.3</ele>
        <time>2015-09-22T09:43:05Z</time>
      </trkpt>
      <trkpt lat="42.34481" lon="0.13808">
        <ele>751.8</ele>
        <time>2015-09-22T09:43:07Z</time>
      </trkpt>
      <trkpt lat="42.34485" lon="0.13804">
        <ele>752.3</ele>
        <time>2015-09-22T09:43:09Z</time>
      </trkpt>
      <trkpt lat="42.34487" lon="0.13799">
        <ele>752.5</ele>
        <time>2015-09-22T09:43:11Z</time>
      </trkpt>
      <trkpt lat="42.3449" lon="0.13797">
        <ele>752.8</ele>
        <time>2015-09-22T09:43:37Z</time>
      </trkpt>
      <trkpt lat="42.34492" lon="0.13795">
        <ele>753.1</ele>
        <time>2015-09-22T09:43:38Z</time>
      </trkpt>
      <trkpt lat="42.34497" lon="0.13792">
        <ele>753.6</ele>
        <time>2015-09-22T09:43:40Z</time>
      </trkpt>
      <trkpt lat="42.345" lon="0.13787">
        <ele>754.3</ele>
        <time>2015-09-22T09:43:42Z</time>
      </trkpt>
      <trkpt lat="42.34503" lon="0.13781">
        <ele>755</ele>
        <time>2015-09-22T09:43:44Z</time>
      </trkpt>
      <trkpt lat="42.34507" lon="0.13776">
        <ele>755.8</ele>
        <time>2015-09-22T09:43:46Z</time>
      </trkpt>
      <trkpt lat="42.34511" lon="0.13773">
        <ele>756.4</ele>
        <time>2015-09-22T09:43:47Z</time>
      </trkpt>
      <trkpt lat="42.34514" lon="0.13771">
        <ele>757</ele>
        <time>2015-09-22T09:43:48Z</time>
      </trkpt>
      <trkpt lat="42.34518" lon="0.1377">
        <ele>757.6</ele>
        <time>2015-09-22T09:43:49Z</time>
      </trkpt>
      <trkpt lat="42.34521" lon="0.13769">
        <ele>758.1</ele>
        <time>2015-09-22T09:43:50Z</time>
      </trkpt>
      <trkpt lat="42.34524" lon="0.13767">
        <ele>758.6</ele>
        <time>2015-09-22T09:43:51Z</time>
      </trkpt>
      <trkpt lat="42.34527" lon="0.13766">
        <ele>759</ele>
        <time>2015-09-22T09:43:52Z</time>
      </trkpt>
      <trkpt lat="42.3453" lon="0.13765">
        <ele>759.5</ele>
        <time>2015-09-22T09:43:53Z</time>
      </trkpt>
      <trkpt lat="42.34533" lon="0.13763">
        <ele>759.9</ele>
        <time>2015-09-22T09:43:54Z</time>
      </trkpt>
      <trkpt lat="42.34535" lon="0.13761">
        <ele>760.4</ele>
        <time>2015-09-22T09:43:55Z</time>
      </trkpt>
      <trkpt lat="42.34538" lon="0.13759">
        <ele>760.8</ele>
        <time>2015-09-22T09:43:56Z</time>
      </trkpt>
      <trkpt lat="42.3454" lon="0.13757">
        <ele>761.3</ele>
        <time>2015-09-22T09:43:57Z</time>
      </trkpt>
      <trkpt lat="42.34543" lon="0.13752">
        <ele>761.8</ele>
        <time>2015-09-22T09:43:59Z</time>
      </trkpt>
      <trkpt lat="42.34546" lon="0.13748">
        <ele>762.2</ele>
        <time>2015-09-22T09:44:01Z</time>
      </trkpt>
      <trkpt lat="42.34549" lon="0.13743">
        <ele>762.5</ele>
        <time>2015-09-22T09:44:03Z</time>
      </trkpt>
      <trkpt lat="42.34552" lon="0.13741">
        <ele>762.7</ele>
        <time>2015-09-22T09:44:04Z</time>
      </trkpt>
      <trkpt lat="42.34554" lon="0.13739">
        <ele>762.9</ele>
        <time>2015-09-22T09:44:05Z</time>
      </trkpt>
      <trkpt lat="42.34557" lon="0.13736">
        <ele>763.1</ele>
        <time>2015-09-22T09:44:06Z</time>
      </trkpt>
      <trkpt lat="42.3456" lon="0.13734">
        <ele>763.2</ele>
        <time>2015-09-22T09:44:07Z</time>
      </trkpt>
      <trkpt lat="42.34563" lon="0.13732">
        <ele>763.3</ele>
        <time>2015-09-22T09:44:08Z</time>
      </trkpt>
      <trkpt lat="42.34566" lon="0.13731">
        <ele>763.5</ele>
        <time>2015-09-22T09:44:09Z</time>
      </trkpt>
      <trkpt lat="42.34568" lon="0.13729">
        <ele>763.6</ele>
        <time>2015-09-22T09:44:10Z</time>
      </trkpt>
      <trkpt lat="42.34571" lon="0.13726">
        <ele>763.8</ele>
        <time>2015-09-22T09:44:11Z</time>
      </trkpt>
      <trkpt lat="42.34573" lon="0.13724">
        <ele>764</ele>
        <time>2015-09-22T09:44:12Z</time>
      </trkpt>
      <trkpt lat="42.34575" lon="0.13721">
        <ele>764.2</ele>
        <time>2015-09-22T09:44:13Z</time>
      </trkpt>
      <trkpt lat="42.34577" lon="0.13718">
        <ele>764.4</ele>
        <time>2015-09-22T09:44:14Z</time>
      </trkpt>
      <trkpt lat="42.34578" lon="0.13715">
        <ele>764.6</ele>
        <time>2015-09-22T09:44:15Z</time>
      </trkpt>
      <trkpt lat="42.34582" lon="0.13709">
        <ele>764.9</ele>
        <time>2015-09-22T09:44:17Z</time>
      </trkpt>
      <trkpt lat="42.34584" lon="0.13706">
        <ele>765</ele>
        <time>2015-09-22T09:44:18Z</time>
      </trkpt>
      <trkpt lat="42.34588" lon="0.13702">
        <ele>765</ele>
        <time>2015-09-22T09:44:20Z</time>
      </trkpt>
      <trkpt lat="42.3459" lon="0.13699">
        <ele>764.9</ele>
        <time>2015-09-22T09:44:21Z</time>
      </trkpt>
      <trkpt lat="42.34593" lon="0.13696">
        <ele>764.8</ele>
        <time>2015-09-22T09:44:22Z</time>
      </trkpt>
      <trkpt lat="42.34595" lon="0.13692">
        <ele>764.7</ele>
        <time>2015-09-22T09:44:23Z</time>
      </trkpt>
      <trkpt lat="42.34597" lon="0.13689">
        <ele>764.6</ele>
        <time>2015-09-22T09:44:24Z</time>
      </trkpt>
      <trkpt lat="42.34599" lon="0.13685">
        <ele>764.5</ele>
        <time>2015-09-22T09:44:25Z</time>
      </trkpt>
      <trkpt lat="42.34601" lon="0.13682">
        <ele>764.3</ele>
        <time>2015-09-22T09:44:26Z</time>
      </trkpt>
      <trkpt lat="42.34603" lon="0.13678">
        <ele>764.2</ele>
        <time>2015-09-22T09:44:27Z</time>
      </trkpt>
      <trkpt lat="42.34605" lon="0.13674">
        <ele>763.9</ele>
        <time>2015-09-22T09:44:28Z</time>
      </trkpt>
      <trkpt lat="42.34606" lon="0.1367">
        <ele>763.7</ele>
        <time>2015-09-22T09:44:29Z</time>
      </trkpt>
      <trkpt lat="42.34608" lon="0.13666">
        <ele>763.5</ele>
        <time>2015-09-22T09:44:30Z</time>
      </trkpt>
      <trkpt lat="42.3461" lon="0.13661">
        <ele>763.2</ele>
        <time>2015-09-22T09:44:31Z</time>
      </trkpt>
      <trkpt lat="42.34611" lon="0.13657">
        <ele>762.9</ele>
        <time>2015-09-22T09:44:32Z</time>
      </trkpt>
      <trkpt lat="42.34613" lon="0.13651">
        <ele>762.6</ele>
        <time>2015-09-22T09:44:33Z</time>
      </trkpt>
      <trkpt lat="42.34614" lon="0.13647">
        <ele>762.3</ele>
        <time>2015-09-22T09:44:34Z</time>
      </trkpt>
      <trkpt lat="42.34616" lon="0.1364">
        <ele>761.8</ele>
        <time>2015-09-22T09:44:35Z</time>
      </trkpt>
      <trkpt lat="42.34618" lon="0.13635">
        <ele>761.3</ele>
        <time>2015-09-22T09:44:36Z</time>
      </trkpt>
      <trkpt lat="42.3462" lon="0.13629">
        <ele>760.8</ele>
        <time>2015-09-22T09:44:37Z</time>
      </trkpt>
      <trkpt lat="42.34622" lon="0.13624">
        <ele>760.3</ele>
        <time>2015-09-22T09:44:38Z</time>
      </trkpt>
      <trkpt lat="42.34623" lon="0.13618">
        <ele>759.8</ele>
        <time>2015-09-22T09:44:39Z</time>
      </trkpt>
      <trkpt lat="42.34624" lon="0.13613">
        <ele>759.3</ele>
        <time>2015-09-22T09:44:40Z</time>
      </trkpt>
      <trkpt lat="42.34624" lon="0.13607">
        <ele>758.8</ele>
        <time>2015-09-22T09:44:41Z</time>
      </trkpt>
      <trkpt lat="42.34624" lon="0.13602">
        <ele>758.5</ele>
        <time>2015-09-22T09:44:42Z</time>
      </trkpt>
      <trkpt lat="42.34623" lon="0.13597">
        <ele>758.2</ele>
        <time>2015-09-22T09:44:43Z</time>
      </trkpt>
      <trkpt lat="42.34623" lon="0.13591">
        <ele>757.8</ele>
        <time>2015-09-22T09:44:44Z</time>
      </trkpt>
      <trkpt lat="42.34622" lon="0.13585">
        <ele>757.5</ele>
        <time>2015-09-22T09:44:45Z</time>
      </trkpt>
      <trkpt lat="42.34622" lon="0.13578">
        <ele>757.1</ele>
        <time>2015-09-22T09:44:46Z</time>
      </trkpt>
      <trkpt lat="42.3462" lon="0.13567">
        <ele>756.6</ele>
        <time>2015-09-22T09:44:47Z</time>
      </trkpt>
      <trkpt lat="42.3462" lon="0.13559">
        <ele>756</ele>
        <time>2015-09-22T09:44:48Z</time>
      </trkpt>
      <trkpt lat="42.34621" lon="0.13552">
        <ele>755.3</ele>
        <time>2015-09-22T09:44:49Z</time>
      </trkpt>
      <trkpt lat="42.34621" lon="0.13547">
        <ele>755</ele>
        <time>2015-09-22T09:44:50Z</time>
      </trkpt>
      <trkpt lat="42.34619" lon="0.13542">
        <ele>754.9</ele>
        <time>2015-09-22T09:44:51Z</time>
      </trkpt>
      <trkpt lat="42.34615" lon="0.13535">
        <ele>755.2</ele>
        <time>2015-09-22T09:44:53Z</time>
      </trkpt>
      <trkpt lat="42.34612" lon="0.1353">
        <ele>755.4</ele>
        <time>2015-09-22T09:44:54Z</time>
      </trkpt>
      <trkpt lat="42.34609" lon="0.13525">
        <ele>755.6</ele>
        <time>2015-09-22T09:44:55Z</time>
      </trkpt>
      <trkpt lat="42.34606" lon="0.1352">
        <ele>755.7</ele>
        <time>2015-09-22T09:44:56Z</time>
      </trkpt>
      <trkpt lat="42.34602" lon="0.13513">
        <ele>755.8</ele>
        <time>2015-09-22T09:44:57Z</time>
      </trkpt>
      <trkpt lat="42.34601" lon="0.13507">
        <ele>755.7</ele>
        <time>2015-09-22T09:44:58Z</time>
      </trkpt>
      <trkpt lat="42.346" lon="0.13502">
        <ele>755.5</ele>
        <time>2015-09-22T09:44:59Z</time>
      </trkpt>
      <trkpt lat="42.34597" lon="0.13496">
        <ele>755.5</ele>
        <time>2015-09-22T09:45:00Z</time>
      </trkpt>
      <trkpt lat="42.34593" lon="0.13491">
        <ele>755.7</ele>
        <time>2015-09-22T09:45:01Z</time>
      </trkpt>
      <trkpt lat="42.34591" lon="0.13484">
        <ele>755.4</ele>
        <time>2015-09-22T09:45:02Z</time>
      </trkpt>
      <trkpt lat="42.3459" lon="0.13476">
        <ele>754.9</ele>
        <time>2015-09-22T09:45:03Z</time>
      </trkpt>
      <trkpt lat="42.34589" lon="0.13469">
        <ele>754.7</ele>
        <time>2015-09-22T09:45:04Z</time>
      </trkpt>
      <trkpt lat="42.34587" lon="0.1346">
        <ele>754.3</ele>
        <time>2015-09-22T09:45:05Z</time>
      </trkpt>
      <trkpt lat="42.34586" lon="0.13452">
        <ele>753.9</ele>
        <time>2015-09-22T09:45:06Z</time>
      </trkpt>
      <trkpt lat="42.34586" lon="0.13444">
        <ele>753.5</ele>
        <time>2015-09-22T09:45:07Z</time>
      </trkpt>
      <trkpt lat="42.34586" lon="0.13437">
        <ele>753.2</ele>
        <time>2015-09-22T09:45:08Z</time>
      </trkpt>
      <trkpt lat="42.34586" lon="0.1343">
        <ele>752.9</ele>
        <time>2015-09-22T09:45:09Z</time>
      </trkpt>
      <trkpt lat="42.34586" lon="0.13426">
        <ele>752.7</ele>
        <time>2015-09-22T09:45:10Z</time>
      </trkpt>
      <trkpt lat="42.34586" lon="0.13419">
        <ele>752.4</ele>
        <time>2015-09-22T09:45:11Z</time>
      </trkpt>
      <trkpt lat="42.34587" lon="0.13414">
        <ele>752.1</ele>
        <time>2015-09-22T09:45:12Z</time>
      </trkpt>
      <trkpt lat="42.34587" lon="0.13408">
        <ele>751.8</ele>
        <time>2015-09-22T09:45:13Z</time>
      </trkpt>
      <trkpt lat="42.34585" lon="0.13402">
        <ele>751.7</ele>
        <time>2015-09-22T09:45:14Z</time>
      </trkpt>
      <trkpt lat="42.34582" lon="0.13396">
        <ele>751.6</ele>
        <time>2015-09-22T09:45:15Z</time>
      </trkpt>
      <trkpt lat="42.34583" lon="0.13392">
        <ele>751.4</ele>
        <time>2015-09-22T09:45:16Z</time>
      </trkpt>
      <trkpt lat="42.34581" lon="0.13386">
        <ele>751.2</ele>
        <time>2015-09-22T09:45:17Z</time>
      </trkpt>
      <trkpt lat="42.34579" lon="0.13381">
        <ele>751.1</ele>
        <time>2015-09-22T09:45:18Z</time>
      </trkpt>
      <trkpt lat="42.34578" lon="0.13377">
        <ele>751</ele>
        <time>2015-09-22T09:45:19Z</time>
      </trkpt>
      <trkpt lat="42.34577" lon="0.13369">
        <ele>751</ele>
        <time>2015-09-22T09:45:21Z</time>
      </trkpt>
      <trkpt lat="42.34576" lon="0.13365">
        <ele>751.1</ele>
        <time>2015-09-22T09:45:22Z</time>
      </trkpt>
      <trkpt lat="42.34574" lon="0.13359">
        <ele>751.2</ele>
        <time>2015-09-22T09:45:23Z</time>
      </trkpt>
      <trkpt lat="42.34572" lon="0.13353">
        <ele>751.2</ele>
        <time>2015-09-22T09:45:24Z</time>
      </trkpt>
      <trkpt lat="42.34575" lon="0.13348">
        <ele>751</ele>
        <time>2015-09-22T09:45:25Z</time>
      </trkpt>
      <trkpt lat="42.34577" lon="0.13342">
        <ele>750.9</ele>
        <time>2015-09-22T09:45:26Z</time>
      </trkpt>
      <trkpt lat="42.34579" lon="0.13337">
        <ele>750.8</ele>
        <time>2015-09-22T09:45:27Z</time>
      </trkpt>
      <trkpt lat="42.34581" lon="0.13333">
        <ele>750.8</ele>
        <time>2015-09-22T09:45:28Z</time>
      </trkpt>
      <trkpt lat="42.34585" lon="0.13329">
        <ele>750.8</ele>
        <time>2015-09-22T09:45:29Z</time>
      </trkpt>
      <trkpt lat="42.34588" lon="0.13326">
        <ele>750.8</ele>
        <time>2015-09-22T09:45:30Z</time>
      </trkpt>
      <trkpt lat="42.34591" lon="0.13323">
        <ele>750.8</ele>
        <time>2015-09-22T09:45:31Z</time>
      </trkpt>
      <trkpt lat="42.34594" lon="0.13321">
        <ele>750.8</ele>
        <time>2015-09-22T09:45:32Z</time>
      </trkpt>
      <trkpt lat="42.34598" lon="0.13319">
        <ele>750.9</ele>
        <time>2015-09-22T09:45:33Z</time>
      </trkpt>
      <trkpt lat="42.346" lon="0.13316">
        <ele>751</ele>
        <time>2015-09-22T09:45:34Z</time>
      </trkpt>
      <trkpt lat="42.34603" lon="0.13313">
        <ele>751.1</ele>
        <time>2015-09-22T09:45:35Z</time>
      </trkpt>
      <trkpt lat="42.34605" lon="0.1331">
        <ele>751.3</ele>
        <time>2015-09-22T09:45:36Z</time>
      </trkpt>
      <trkpt lat="42.34608" lon="0.13307">
        <ele>751.5</ele>
        <time>2015-09-22T09:45:37Z</time>
      </trkpt>
      <trkpt lat="42.34611" lon="0.13302">
        <ele>751.8</ele>
        <time>2015-09-22T09:45:39Z</time>
      </trkpt>
      <trkpt lat="42.34614" lon="0.13297">
        <ele>752.2</ele>
        <time>2015-09-22T09:45:41Z</time>
      </trkpt>
      <trkpt lat="42.34616" lon="0.13294">
        <ele>752.4</ele>
        <time>2015-09-22T09:45:42Z</time>
      </trkpt>
      <trkpt lat="42.34617" lon="0.1329">
        <ele>752.8</ele>
        <time>2015-09-22T09:45:43Z</time>
      </trkpt>
      <trkpt lat="42.34619" lon="0.13287">
        <ele>753.2</ele>
        <time>2015-09-22T09:45:44Z</time>
      </trkpt>
      <trkpt lat="42.3462" lon="0.13283">
        <ele>753.6</ele>
        <time>2015-09-22T09:45:45Z</time>
      </trkpt>
      <trkpt lat="42.34624" lon="0.13278">
        <ele>754.4</ele>
        <time>2015-09-22T09:45:47Z</time>
      </trkpt>
      <trkpt lat="42.34626" lon="0.13275">
        <ele>754.7</ele>
        <time>2015-09-22T09:45:48Z</time>
      </trkpt>
      <trkpt lat="42.34628" lon="0.13273">
        <ele>755</ele>
        <time>2015-09-22T09:45:49Z</time>
      </trkpt>
      <trkpt lat="42.34631" lon="0.13271">
        <ele>755.1</ele>
        <time>2015-09-22T09:45:50Z</time>
      </trkpt>
      <trkpt lat="42.34634" lon="0.13269">
        <ele>755.2</ele>
        <time>2015-09-22T09:45:51Z</time>
      </trkpt>
      <trkpt lat="42.34637" lon="0.13268">
        <ele>755.3</ele>
        <time>2015-09-22T09:45:52Z</time>
      </trkpt>
      <trkpt lat="42.3464" lon="0.13267">
        <ele>755.3</ele>
        <time>2015-09-22T09:45:53Z</time>
      </trkpt>
      <trkpt lat="42.34642" lon="0.13266">
        <ele>755.4</ele>
        <time>2015-09-22T09:45:54Z</time>
      </trkpt>
      <trkpt lat="42.34646" lon="0.13264">
        <ele>755.4</ele>
        <time>2015-09-22T09:45:56Z</time>
      </trkpt>
      <trkpt lat="42.3465" lon="0.13265">
        <ele>755.3</ele>
        <time>2015-09-22T09:45:58Z</time>
      </trkpt>
      <trkpt lat="42.34653" lon="0.13263">
        <ele>755.4</ele>
        <time>2015-09-22T09:46:00Z</time>
      </trkpt>
      <trkpt lat="42.34656" lon="0.13261">
        <ele>755.5</ele>
        <time>2015-09-22T09:46:02Z</time>
      </trkpt>
      <trkpt lat="42.34659" lon="0.13259">
        <ele>755.7</ele>
        <time>2015-09-22T09:46:04Z</time>
      </trkpt>
      <trkpt lat="42.34663" lon="0.13257">
        <ele>755.9</ele>
        <time>2015-09-22T09:46:06Z</time>
      </trkpt>
      <trkpt lat="42.34667" lon="0.13255">
        <ele>756</ele>
        <time>2015-09-22T09:46:08Z</time>
      </trkpt>
      <trkpt lat="42.34671" lon="0.13254">
        <ele>756</ele>
        <time>2015-09-22T09:46:10Z</time>
      </trkpt>
      <trkpt lat="42.34675" lon="0.13252">
        <ele>756.1</ele>
        <time>2015-09-22T09:46:12Z</time>
      </trkpt>
      <trkpt lat="42.34679" lon="0.13251">
        <ele>756.1</ele>
        <time>2015-09-22T09:46:14Z</time>
      </trkpt>
      <trkpt lat="42.34682" lon="0.1325">
        <ele>756.1</ele>
        <time>2015-09-22T09:46:16Z</time>
      </trkpt>
      <trkpt lat="42.34686" lon="0.13248">
        <ele>756.2</ele>
        <time>2015-09-22T09:46:18Z</time>
      </trkpt>
      <trkpt lat="42.34689" lon="0.13246">
        <ele>756.3</ele>
        <time>2015-09-22T09:46:20Z</time>
      </trkpt>
      <trkpt lat="42.34693" lon="0.13244">
        <ele>756.5</ele>
        <time>2015-09-22T09:46:22Z</time>
      </trkpt>
      <trkpt lat="42.34696" lon="0.13242">
        <ele>756.7</ele>
        <time>2015-09-22T09:46:24Z</time>
      </trkpt>
      <trkpt lat="42.34699" lon="0.1324">
        <ele>756.8</ele>
        <time>2015-09-22T09:46:26Z</time>
      </trkpt>
      <trkpt lat="42.34702" lon="0.13237">
        <ele>757</ele>
        <time>2015-09-22T09:46:28Z</time>
      </trkpt>
      <trkpt lat="42.34705" lon="0.13234">
        <ele>757.3</ele>
        <time>2015-09-22T09:46:30Z</time>
      </trkpt>
      <trkpt lat="42.34707" lon="0.1323">
        <ele>757.7</ele>
        <time>2015-09-22T09:46:32Z</time>
      </trkpt>
      <trkpt lat="42.34709" lon="0.13225">
        <ele>758.2</ele>
        <time>2015-09-22T09:46:34Z</time>
      </trkpt>
      <trkpt lat="42.34711" lon="0.13221">
        <ele>758.6</ele>
        <time>2015-09-22T09:46:36Z</time>
      </trkpt>
      <trkpt lat="42.34713" lon="0.13216">
        <ele>759</ele>
        <time>2015-09-22T09:46:37Z</time>
      </trkpt>
      <trkpt lat="42.34715" lon="0.13213">
        <ele>759.3</ele>
        <time>2015-09-22T09:46:38Z</time>
      </trkpt>
      <trkpt lat="42.34717" lon="0.1321">
        <ele>759.5</ele>
        <time>2015-09-22T09:46:39Z</time>
      </trkpt>
      <trkpt lat="42.3472" lon="0.13208">
        <ele>759.6</ele>
        <time>2015-09-22T09:46:40Z</time>
      </trkpt>
      <trkpt lat="42.34725" lon="0.13206">
        <ele>759.5</ele>
        <time>2015-09-22T09:46:42Z</time>
      </trkpt>
      <trkpt lat="42.34728" lon="0.13203">
        <ele>759.5</ele>
        <time>2015-09-22T09:46:44Z</time>
      </trkpt>
      <trkpt lat="42.3473" lon="0.13199">
        <ele>759.5</ele>
        <time>2015-09-22T09:46:46Z</time>
      </trkpt>
      <trkpt lat="42.34732" lon="0.13193">
        <ele>759.6</ele>
        <time>2015-09-22T09:46:48Z</time>
      </trkpt>
      <trkpt lat="42.34734" lon="0.13187">
        <ele>759.6</ele>
        <time>2015-09-22T09:46:50Z</time>
      </trkpt>
      <trkpt lat="42.34737" lon="0.13183">
        <ele>759.6</ele>
        <time>2015-09-22T09:46:52Z</time>
      </trkpt>
      <trkpt lat="42.3474" lon="0.13179">
        <ele>759.5</ele>
        <time>2015-09-22T09:46:54Z</time>
      </trkpt>
      <trkpt lat="42.34742" lon="0.13176">
        <ele>759.4</ele>
        <time>2015-09-22T09:46:56Z</time>
      </trkpt>
      <trkpt lat="42.34743" lon="0.13171">
        <ele>759.4</ele>
        <time>2015-09-22T09:46:58Z</time>
      </trkpt>
      <trkpt lat="42.34745" lon="0.13165">
        <ele>759.4</ele>
        <time>2015-09-22T09:47:00Z</time>
      </trkpt>
      <trkpt lat="42.34746" lon="0.13159">
        <ele>759.4</ele>
        <time>2015-09-22T09:47:02Z</time>
      </trkpt>
      <trkpt lat="42.34748" lon="0.13152">
        <ele>759.4</ele>
        <time>2015-09-22T09:47:04Z</time>
      </trkpt>
      <trkpt lat="42.34748" lon="0.13145">
        <ele>759.4</ele>
        <time>2015-09-22T09:47:06Z</time>
      </trkpt>
      <trkpt lat="42.34748" lon="0.13141">
        <ele>759.5</ele>
        <time>2015-09-22T09:47:07Z</time>
      </trkpt>
      <trkpt lat="42.34747" lon="0.13138">
        <ele>759.6</ele>
        <time>2015-09-22T09:47:08Z</time>
      </trkpt>
      <trkpt lat="42.34746" lon="0.13134">
        <ele>759.8</ele>
        <time>2015-09-22T09:47:09Z</time>
      </trkpt>
      <trkpt lat="42.34745" lon="0.1313">
        <ele>760</ele>
        <time>2015-09-22T09:47:10Z</time>
      </trkpt>
      <trkpt lat="42.34744" lon="0.13125">
        <ele>760.2</ele>
        <time>2015-09-22T09:47:11Z</time>
      </trkpt>
      <trkpt lat="42.34743" lon="0.13121">
        <ele>760.6</ele>
        <time>2015-09-22T09:47:12Z</time>
      </trkpt>
      <trkpt lat="42.34742" lon="0.13117">
        <ele>760.9</ele>
        <time>2015-09-22T09:47:13Z</time>
      </trkpt>
      <trkpt lat="42.34742" lon="0.13112">
        <ele>761.3</ele>
        <time>2015-09-22T09:47:14Z</time>
      </trkpt>
      <trkpt lat="42.34742" lon="0.13107">
        <ele>761.6</ele>
        <time>2015-09-22T09:47:15Z</time>
      </trkpt>
      <trkpt lat="42.34741" lon="0.13103">
        <ele>762</ele>
        <time>2015-09-22T09:47:16Z</time>
      </trkpt>
      <trkpt lat="42.34741" lon="0.13098">
        <ele>762.3</ele>
        <time>2015-09-22T09:47:17Z</time>
      </trkpt>
      <trkpt lat="42.34741" lon="0.13093">
        <ele>762.7</ele>
        <time>2015-09-22T09:47:18Z</time>
      </trkpt>
      <trkpt lat="42.34741" lon="0.13087">
        <ele>763.1</ele>
        <time>2015-09-22T09:47:19Z</time>
      </trkpt>
      <trkpt lat="42.34741" lon="0.13081">
        <ele>763.4</ele>
        <time>2015-09-22T09:47:20Z</time>
      </trkpt>
      <trkpt lat="42.34742" lon="0.13075">
        <ele>763.7</ele>
        <time>2015-09-22T09:47:21Z</time>
      </trkpt>
      <trkpt lat="42.34742" lon="0.1307">
        <ele>764</ele>
        <time>2015-09-22T09:47:22Z</time>
      </trkpt>
      <trkpt lat="42.34741" lon="0.13065">
        <ele>764.5</ele>
        <time>2015-09-22T09:47:23Z</time>
      </trkpt>
      <trkpt lat="42.3474" lon="0.1306">
        <ele>765.1</ele>
        <time>2015-09-22T09:47:24Z</time>
      </trkpt>
      <trkpt lat="42.34735" lon="0.13052">
        <ele>766.4</ele>
        <time>2015-09-22T09:47:25Z</time>
      </trkpt>
      <trkpt lat="42.34734" lon="0.13047">
        <ele>767.1</ele>
        <time>2015-09-22T09:47:26Z</time>
      </trkpt>
      <trkpt lat="42.34733" lon="0.13041">
        <ele>767.5</ele>
        <time>2015-09-22T09:47:27Z</time>
      </trkpt>
      <trkpt lat="42.34733" lon="0.13037">
        <ele>767.3</ele>
        <time>2015-09-22T09:47:28Z</time>
      </trkpt>
      <trkpt lat="42.34733" lon="0.13032">
        <ele>767.1</ele>
        <time>2015-09-22T09:47:29Z</time>
      </trkpt>
      <trkpt lat="42.34732" lon="0.13028">
        <ele>767</ele>
        <time>2015-09-22T09:47:30Z</time>
      </trkpt>
      <trkpt lat="42.34733" lon="0.13023">
        <ele>766.8</ele>
        <time>2015-09-22T09:47:31Z</time>
      </trkpt>
      <trkpt lat="42.34733" lon="0.13018">
        <ele>766.5</ele>
        <time>2015-09-22T09:47:32Z</time>
      </trkpt>
      <trkpt lat="42.34735" lon="0.13013">
        <ele>765.9</ele>
        <time>2015-09-22T09:47:33Z</time>
      </trkpt>
      <trkpt lat="42.34736" lon="0.13007">
        <ele>765.4</ele>
        <time>2015-09-22T09:47:34Z</time>
      </trkpt>
      <trkpt lat="42.34738" lon="0.13002">
        <ele>765</ele>
        <time>2015-09-22T09:47:35Z</time>
      </trkpt>
      <trkpt lat="42.3474" lon="0.12997">
        <ele>764.5</ele>
        <time>2015-09-22T09:47:36Z</time>
      </trkpt>
      <trkpt lat="42.34742" lon="0.12993">
        <ele>763.9</ele>
        <time>2015-09-22T09:47:37Z</time>
      </trkpt>
      <trkpt lat="42.34745" lon="0.12989">
        <ele>763.4</ele>
        <time>2015-09-22T09:47:38Z</time>
      </trkpt>
      <trkpt lat="42.34747" lon="0.12984">
        <ele>762.9</ele>
        <time>2015-09-22T09:47:39Z</time>
      </trkpt>
      <trkpt lat="42.34748" lon="0.12981">
        <ele>762.6</ele>
        <time>2015-09-22T09:47:40Z</time>
      </trkpt>
      <trkpt lat="42.34749" lon="0.12977">
        <ele>762.3</ele>
        <time>2015-09-22T09:47:41Z</time>
      </trkpt>
      <trkpt lat="42.34749" lon="0.12972">
        <ele>762.1</ele>
        <time>2015-09-22T09:47:42Z</time>
      </trkpt>
      <trkpt lat="42.3475" lon="0.12968">
        <ele>761.9</ele>
        <time>2015-09-22T09:47:43Z</time>
      </trkpt>
      <trkpt lat="42.3475" lon="0.12964">
        <ele>761.7</ele>
        <time>2015-09-22T09:47:44Z</time>
      </trkpt>
      <trkpt lat="42.3475" lon="0.12959">
        <ele>761.5</ele>
        <time>2015-09-22T09:47:45Z</time>
      </trkpt>
      <trkpt lat="42.3475" lon="0.12954">
        <ele>761.2</ele>
        <time>2015-09-22T09:47:46Z</time>
      </trkpt>
      <trkpt lat="42.3475" lon="0.1295">
        <ele>760.8</ele>
        <time>2015-09-22T09:47:47Z</time>
      </trkpt>
      <trkpt lat="42.3475" lon="0.12946">
        <ele>760.5</ele>
        <time>2015-09-22T09:47:48Z</time>
      </trkpt>
      <trkpt lat="42.3475" lon="0.12942">
        <ele>760.2</ele>
        <time>2015-09-22T09:47:49Z</time>
      </trkpt>
      <trkpt lat="42.34751" lon="0.12934">
        <ele>759.6</ele>
        <time>2015-09-22T09:47:51Z</time>
      </trkpt>
      <trkpt lat="42.34751" lon="0.12929">
        <ele>759.1</ele>
        <time>2015-09-22T09:47:52Z</time>
      </trkpt>
      <trkpt lat="42.34754" lon="0.12922">
        <ele>758.4</ele>
        <time>2015-09-22T09:47:53Z</time>
      </trkpt>
      <trkpt lat="42.34757" lon="0.12919">
        <ele>758</ele>
        <time>2015-09-22T09:47:54Z</time>
      </trkpt>
      <trkpt lat="42.34761" lon="0.12916">
        <ele>757.6</ele>
        <time>2015-09-22T09:47:55Z</time>
      </trkpt>
      <trkpt lat="42.34765" lon="0.12912">
        <ele>757.2</ele>
        <time>2015-09-22T09:47:56Z</time>
      </trkpt>
      <trkpt lat="42.34767" lon="0.12908">
        <ele>756.9</ele>
        <time>2015-09-22T09:47:57Z</time>
      </trkpt>
      <trkpt lat="42.3477" lon="0.12905">
        <ele>756.7</ele>
        <time>2015-09-22T09:47:58Z</time>
      </trkpt>
      <trkpt lat="42.34773" lon="0.12901">
        <ele>756.5</ele>
        <time>2015-09-22T09:47:59Z</time>
      </trkpt>
      <trkpt lat="42.34776" lon="0.12899">
        <ele>756.3</ele>
        <time>2015-09-22T09:48:00Z</time>
      </trkpt>
      <trkpt lat="42.34778" lon="0.12896">
        <ele>756.2</ele>
        <time>2015-09-22T09:48:02Z</time>
      </trkpt>
      <trkpt lat="42.34781" lon="0.12893">
        <ele>756.1</ele>
        <time>2015-09-22T09:48:15Z</time>
      </trkpt>
      <trkpt lat="42.34784" lon="0.12891">
        <ele>756</ele>
        <time>2015-09-22T09:48:18Z</time>
      </trkpt>
      <trkpt lat="42.34787" lon="0.1289">
        <ele>756</ele>
        <time>2015-09-22T09:48:21Z</time>
      </trkpt>
      <trkpt lat="42.34788" lon="0.12885">
        <ele>756</ele>
        <time>2015-09-22T09:48:25Z</time>
      </trkpt>
      <trkpt lat="42.3479" lon="0.12878">
        <ele>756</ele>
        <time>2015-09-22T09:48:28Z</time>
      </trkpt>
      <trkpt lat="42.34791" lon="0.12873">
        <ele>756</ele>
        <time>2015-09-22T09:48:30Z</time>
      </trkpt>
      <trkpt lat="42.34792" lon="0.12868">
        <ele>756</ele>
        <time>2015-09-22T09:48:32Z</time>
      </trkpt>
      <trkpt lat="42.34796" lon="0.12864">
        <ele>755.8</ele>
        <time>2015-09-22T09:48:34Z</time>
      </trkpt>
      <trkpt lat="42.34798" lon="0.12862">
        <ele>755.6</ele>
        <time>2015-09-22T09:48:35Z</time>
      </trkpt>
      <trkpt lat="42.34801" lon="0.1286">
        <ele>755.3</ele>
        <time>2015-09-22T09:48:36Z</time>
      </trkpt>
      <trkpt lat="42.34804" lon="0.12858">
        <ele>755.1</ele>
        <time>2015-09-22T09:48:37Z</time>
      </trkpt>
      <trkpt lat="42.34809" lon="0.12856">
        <ele>754.8</ele>
        <time>2015-09-22T09:48:39Z</time>
      </trkpt>
      <trkpt lat="42.34812" lon="0.12855">
        <ele>754.7</ele>
        <time>2015-09-22T09:48:40Z</time>
      </trkpt>
      <trkpt lat="42.34814" lon="0.12855">
        <ele>754.5</ele>
        <time>2015-09-22T09:48:41Z</time>
      </trkpt>
      <trkpt lat="42.3482" lon="0.12855">
        <ele>754</ele>
        <time>2015-09-22T09:48:43Z</time>
      </trkpt>
      <trkpt lat="42.34825" lon="0.12854">
        <ele>753.7</ele>
        <time>2015-09-22T09:48:45Z</time>
      </trkpt>
      <trkpt lat="42.3483" lon="0.12853">
        <ele>753.4</ele>
        <time>2015-09-22T09:48:47Z</time>
      </trkpt>
      <trkpt lat="42.34832" lon="0.12852">
        <ele>753.3</ele>
        <time>2015-09-22T09:48:48Z</time>
      </trkpt>
      <trkpt lat="42.34835" lon="0.1285">
        <ele>753.3</ele>
        <time>2015-09-22T09:48:49Z</time>
      </trkpt>
      <trkpt lat="42.34838" lon="0.12848">
        <ele>753.3</ele>
        <time>2015-09-22T09:48:50Z</time>
      </trkpt>
      <trkpt lat="42.3484" lon="0.12847">
        <ele>753.3</ele>
        <time>2015-09-22T09:48:51Z</time>
      </trkpt>
      <trkpt lat="42.34843" lon="0.12846">
        <ele>753.2</ele>
        <time>2015-09-22T09:48:52Z</time>
      </trkpt>
      <trkpt lat="42.34846" lon="0.12847">
        <ele>752.9</ele>
        <time>2015-09-22T09:48:53Z</time>
      </trkpt>
      <trkpt lat="42.3485" lon="0.12849">
        <ele>752.4</ele>
        <time>2015-09-22T09:48:54Z</time>
      </trkpt>
      <trkpt lat="42.34854" lon="0.12853">
        <ele>751.6</ele>
        <time>2015-09-22T09:48:55Z</time>
      </trkpt>
      <trkpt lat="42.34857" lon="0.12857">
        <ele>750.7</ele>
        <time>2015-09-22T09:48:56Z</time>
      </trkpt>
      <trkpt lat="42.3486" lon="0.12861">
        <ele>749.8</ele>
        <time>2015-09-22T09:48:57Z</time>
      </trkpt>
      <trkpt lat="42.34863" lon="0.12865">
        <ele>749</ele>
        <time>2015-09-22T09:48:58Z</time>
      </trkpt>
      <trkpt lat="42.34865" lon="0.12869">
        <ele>748.2</ele>
        <time>2015-09-22T09:48:59Z</time>
      </trkpt>
      <trkpt lat="42.34863" lon="0.12875">
        <ele>747.4</ele>
        <time>2015-09-22T09:49:01Z</time>
      </trkpt>
      <trkpt lat="42.34861" lon="0.12881">
        <ele>747.3</ele>
        <time>2015-09-22T09:49:03Z</time>
      </trkpt>
      <trkpt lat="42.34861" lon="0.12885">
        <ele>747</ele>
        <time>2015-09-22T09:49:05Z</time>
      </trkpt>
      <trkpt lat="42.34863" lon="0.12888">
        <ele>746.6</ele>
        <time>2015-09-22T09:49:16Z</time>
      </trkpt>
      <trkpt lat="42.34864" lon="0.12891">
        <ele>746.1</ele>
        <time>2015-09-22T09:49:20Z</time>
      </trkpt>
      <trkpt lat="42.34866" lon="0.12894">
        <ele>745.6</ele>
        <time>2015-09-22T09:49:25Z</time>
      </trkpt>
      <trkpt lat="42.34868" lon="0.12891">
        <ele>745.6</ele>
        <time>2015-09-22T09:49:30Z</time>
      </trkpt>
      <trkpt lat="42.34867" lon="0.12887">
        <ele>746</ele>
        <time>2015-09-22T09:49:35Z</time>
      </trkpt>
      <trkpt lat="42.34867" lon="0.12883">
        <ele>746.3</ele>
        <time>2015-09-22T09:49:40Z</time>
      </trkpt>
      <trkpt lat="42.3487" lon="0.12881">
        <ele>746.2</ele>
        <time>2015-09-22T09:49:45Z</time>
      </trkpt>
      <trkpt lat="42.34873" lon="0.12881">
        <ele>745.7</ele>
        <time>2015-09-22T09:49:49Z</time>
      </trkpt>
      <trkpt lat="42.34876" lon="0.12882">
        <ele>745.5</ele>
        <time>2015-09-22T09:49:53Z</time>
      </trkpt>
      <trkpt lat="42.34882" lon="0.12885">
        <ele>745.7</ele>
        <time>2015-09-22T09:50:12Z</time>
      </trkpt>
      <trkpt lat="42.34885" lon="0.12889">
        <ele>745.7</ele>
        <time>2015-09-22T09:50:15Z</time>
      </trkpt>
      <trkpt lat="42.34887" lon="0.12893">
        <ele>745.7</ele>
        <time>2015-09-22T09:50:17Z</time>
      </trkpt>
      <trkpt lat="42.34888" lon="0.12897">
        <ele>745.5</ele>
        <time>2015-09-22T09:50:19Z</time>
      </trkpt>
      <trkpt lat="42.3489" lon="0.12902">
        <ele>745.3</ele>
        <time>2015-09-22T09:50:21Z</time>
      </trkpt>
      <trkpt lat="42.34891" lon="0.12906">
        <ele>745.2</ele>
        <time>2015-09-22T09:50:23Z</time>
      </trkpt>
      <trkpt lat="42.34893" lon="0.12909">
        <ele>745.2</ele>
        <time>2015-09-22T09:50:25Z</time>
      </trkpt>
      <trkpt lat="42.34896" lon="0.12906">
        <ele>745.7</ele>
        <time>2015-09-22T09:50:33Z</time>
      </trkpt>
      <trkpt lat="42.34897" lon="0.12903">
        <ele>746</ele>
        <time>2015-09-22T09:50:38Z</time>
      </trkpt>
      <trkpt lat="42.34899" lon="0.12899">
        <ele>746.5</ele>
        <time>2015-09-22T09:50:44Z</time>
      </trkpt>
      <trkpt lat="42.34901" lon="0.12896">
        <ele>746.9</ele>
        <time>2015-09-22T09:50:46Z</time>
      </trkpt>
      <trkpt lat="42.34902" lon="0.12892">
        <ele>747.2</ele>
        <time>2015-09-22T09:50:48Z</time>
      </trkpt>
      <trkpt lat="42.34903" lon="0.12888">
        <ele>747.5</ele>
        <time>2015-09-22T09:50:50Z</time>
      </trkpt>
      <trkpt lat="42.34904" lon="0.12885">
        <ele>747.8</ele>
        <time>2015-09-22T09:50:52Z</time>
      </trkpt>
      <trkpt lat="42.34907" lon="0.12883">
        <ele>748.2</ele>
        <time>2015-09-22T09:50:54Z</time>
      </trkpt>
      <trkpt lat="42.34909" lon="0.12882">
        <ele>748.5</ele>
        <time>2015-09-22T09:50:56Z</time>
      </trkpt>
      <trkpt lat="42.34912" lon="0.12882">
        <ele>748.8</ele>
        <time>2015-09-22T09:50:58Z</time>
      </trkpt>
      <trkpt lat="42.34915" lon="0.12883">
        <ele>748.9</ele>
        <time>2015-09-22T09:51:03Z</time>
      </trkpt>
      <trkpt lat="42.34917" lon="0.12886">
        <ele>749</ele>
        <time>2015-09-22T09:51:08Z</time>
      </trkpt>
      <trkpt lat="42.34919" lon="0.1289">
        <ele>749</ele>
        <time>2015-09-22T09:51:12Z</time>
      </trkpt>
      <trkpt lat="42.34922" lon="0.12893">
        <ele>749.1</ele>
        <time>2015-09-22T09:51:16Z</time>
      </trkpt>
      <trkpt lat="42.34924" lon="0.12895">
        <ele>749.3</ele>
        <time>2015-09-22T09:51:20Z</time>
      </trkpt>
      <trkpt lat="42.34926" lon="0.12899">
        <ele>749.3</ele>
        <time>2015-09-22T09:51:25Z</time>
      </trkpt>
      <trkpt lat="42.34929" lon="0.12902">
        <ele>749.5</ele>
        <time>2015-09-22T09:51:39Z</time>
      </trkpt>
      <trkpt lat="42.34932" lon="0.12905">
        <ele>749.8</ele>
        <time>2015-09-22T09:51:42Z</time>
      </trkpt>
      <trkpt lat="42.34936" lon="0.12905">
        <ele>750.2</ele>
        <time>2015-09-22T09:51:45Z</time>
      </trkpt>
      <trkpt lat="42.34939" lon="0.12904">
        <ele>750.6</ele>
        <time>2015-09-22T09:51:48Z</time>
      </trkpt>
      <trkpt lat="42.34943" lon="0.12903">
        <ele>751</ele>
        <time>2015-09-22T09:51:51Z</time>
      </trkpt>
      <trkpt lat="42.34946" lon="0.12902">
        <ele>751.4</ele>
        <time>2015-09-22T09:51:54Z</time>
      </trkpt>
      <trkpt lat="42.34949" lon="0.12902">
        <ele>751.7</ele>
        <time>2015-09-22T09:51:56Z</time>
      </trkpt>
      <trkpt lat="42.34953" lon="0.12902">
        <ele>752.1</ele>
        <time>2015-09-22T09:51:58Z</time>
      </trkpt>
      <trkpt lat="42.34956" lon="0.12902">
        <ele>752.5</ele>
        <time>2015-09-22T09:52:00Z</time>
      </trkpt>
      <trkpt lat="42.3496" lon="0.12904">
        <ele>753</ele>
        <time>2015-09-22T09:52:02Z</time>
      </trkpt>
      <trkpt lat="42.34964" lon="0.12906">
        <ele>753.7</ele>
        <time>2015-09-22T09:52:04Z</time>
      </trkpt>
      <trkpt lat="42.34967" lon="0.12908">
        <ele>754.3</ele>
        <time>2015-09-22T09:52:06Z</time>
      </trkpt>
      <trkpt lat="42.3497" lon="0.1291">
        <ele>754.8</ele>
        <time>2015-09-22T09:52:08Z</time>
      </trkpt>
      <trkpt lat="42.34973" lon="0.12912">
        <ele>755.4</ele>
        <time>2015-09-22T09:52:10Z</time>
      </trkpt>
      <trkpt lat="42.34975" lon="0.12913">
        <ele>755.9</ele>
        <time>2015-09-22T09:52:12Z</time>
      </trkpt>
      <trkpt lat="42.34978" lon="0.12915">
        <ele>756.5</ele>
        <time>2015-09-22T09:52:14Z</time>
      </trkpt>
      <trkpt lat="42.34981" lon="0.12918">
        <ele>757</ele>
        <time>2015-09-22T09:52:16Z</time>
      </trkpt>
      <trkpt lat="42.34985" lon="0.12921">
        <ele>757.6</ele>
        <time>2015-09-22T09:52:18Z</time>
      </trkpt>
      <trkpt lat="42.34989" lon="0.1292">
        <ele>758.4</ele>
        <time>2015-09-22T09:52:20Z</time>
      </trkpt>
      <trkpt lat="42.34992" lon="0.12919">
        <ele>759.2</ele>
        <time>2015-09-22T09:52:22Z</time>
      </trkpt>
      <trkpt lat="42.34996" lon="0.12917">
        <ele>759.9</ele>
        <time>2015-09-22T09:52:24Z</time>
      </trkpt>
      <trkpt lat="42.34999" lon="0.12916">
        <ele>760.6</ele>
        <time>2015-09-22T09:52:26Z</time>
      </trkpt>
      <trkpt lat="42.35003" lon="0.12916">
        <ele>761.3</ele>
        <time>2015-09-22T09:52:28Z</time>
      </trkpt>
      <trkpt lat="42.35006" lon="0.12915">
        <ele>762</ele>
        <time>2015-09-22T09:52:30Z</time>
      </trkpt>
      <trkpt lat="42.3501" lon="0.12914">
        <ele>762.7</ele>
        <time>2015-09-22T09:52:32Z</time>
      </trkpt>
      <trkpt lat="42.35014" lon="0.12913">
        <ele>763.5</ele>
        <time>2015-09-22T09:52:34Z</time>
      </trkpt>
      <trkpt lat="42.35018" lon="0.12911">
        <ele>764.4</ele>
        <time>2015-09-22T09:52:36Z</time>
      </trkpt>
      <trkpt lat="42.35022" lon="0.1291">
        <ele>765.3</ele>
        <time>2015-09-22T09:52:38Z</time>
      </trkpt>
      <trkpt lat="42.35028" lon="0.12908">
        <ele>766.4</ele>
        <time>2015-09-22T09:52:40Z</time>
      </trkpt>
      <trkpt lat="42.3503" lon="0.12908">
        <ele>767</ele>
        <time>2015-09-22T09:52:41Z</time>
      </trkpt>
      <trkpt lat="42.35036" lon="0.12907">
        <ele>768</ele>
        <time>2015-09-22T09:52:43Z</time>
      </trkpt>
      <trkpt lat="42.35041" lon="0.12907">
        <ele>769.1</ele>
        <time>2015-09-22T09:52:45Z</time>
      </trkpt>
      <trkpt lat="42.35046" lon="0.12908">
        <ele>769.8</ele>
        <time>2015-09-22T09:52:47Z</time>
      </trkpt>
      <trkpt lat="42.35051" lon="0.12909">
        <ele>770.3</ele>
        <time>2015-09-22T09:52:49Z</time>
      </trkpt>
      <trkpt lat="42.35055" lon="0.1291">
        <ele>770.8</ele>
        <time>2015-09-22T09:52:51Z</time>
      </trkpt>
      <trkpt lat="42.35059" lon="0.12911">
        <ele>771.3</ele>
        <time>2015-09-22T09:52:53Z</time>
      </trkpt>
      <trkpt lat="42.35063" lon="0.12911">
        <ele>771.8</ele>
        <time>2015-09-22T09:52:56Z</time>
      </trkpt>
      <trkpt lat="42.35067" lon="0.1291">
        <ele>772.3</ele>
        <time>2015-09-22T09:52:59Z</time>
      </trkpt>
      <trkpt lat="42.35069" lon="0.12908">
        <ele>772.7</ele>
        <time>2015-09-22T09:53:01Z</time>
      </trkpt>
      <trkpt lat="42.35072" lon="0.12906">
        <ele>773.1</ele>
        <time>2015-09-22T09:53:03Z</time>
      </trkpt>
      <trkpt lat="42.35074" lon="0.12904">
        <ele>773.4</ele>
        <time>2015-09-22T09:53:05Z</time>
      </trkpt>
      <trkpt lat="42.35078" lon="0.12903">
        <ele>774</ele>
        <time>2015-09-22T09:53:08Z</time>
      </trkpt>
      <trkpt lat="42.35082" lon="0.12903">
        <ele>774.4</ele>
        <time>2015-09-22T09:53:11Z</time>
      </trkpt>
      <trkpt lat="42.35085" lon="0.12903">
        <ele>774.9</ele>
        <time>2015-09-22T09:53:14Z</time>
      </trkpt>
      <trkpt lat="42.35089" lon="0.12902">
        <ele>775.5</ele>
        <time>2015-09-22T09:53:17Z</time>
      </trkpt>
      <trkpt lat="42.35092" lon="0.129">
        <ele>775.9</ele>
        <time>2015-09-22T09:53:19Z</time>
      </trkpt>
      <trkpt lat="42.35094" lon="0.12897">
        <ele>776.2</ele>
        <time>2015-09-22T09:53:21Z</time>
      </trkpt>
      <trkpt lat="42.35096" lon="0.12894">
        <ele>776.6</ele>
        <time>2015-09-22T09:53:23Z</time>
      </trkpt>
      <trkpt lat="42.35098" lon="0.12891">
        <ele>777</ele>
        <time>2015-09-22T09:53:25Z</time>
      </trkpt>
      <trkpt lat="42.35101" lon="0.12888">
        <ele>777.4</ele>
        <time>2015-09-22T09:53:27Z</time>
      </trkpt>
      <trkpt lat="42.35103" lon="0.12887">
        <ele>777.8</ele>
        <time>2015-09-22T09:53:29Z</time>
      </trkpt>
      <trkpt lat="42.35106" lon="0.12887">
        <ele>778.1</ele>
        <time>2015-09-22T09:53:31Z</time>
      </trkpt>
      <trkpt lat="42.35109" lon="0.12887">
        <ele>778.5</ele>
        <time>2015-09-22T09:53:33Z</time>
      </trkpt>
      <trkpt lat="42.35113" lon="0.12888">
        <ele>778.9</ele>
        <time>2015-09-22T09:53:36Z</time>
      </trkpt>
      <trkpt lat="42.35116" lon="0.12887">
        <ele>779.3</ele>
        <time>2015-09-22T09:53:38Z</time>
      </trkpt>
      <trkpt lat="42.35118" lon="0.12885">
        <ele>779.7</ele>
        <time>2015-09-22T09:53:40Z</time>
      </trkpt>
      <trkpt lat="42.3512" lon="0.12882">
        <ele>780.1</ele>
        <time>2015-09-22T09:53:42Z</time>
      </trkpt>
      <trkpt lat="42.35122" lon="0.1288">
        <ele>780.5</ele>
        <time>2015-09-22T09:53:44Z</time>
      </trkpt>
      <trkpt lat="42.35125" lon="0.12877">
        <ele>780.9</ele>
        <time>2015-09-22T09:53:46Z</time>
      </trkpt>
      <trkpt lat="42.35129" lon="0.12874">
        <ele>781.3</ele>
        <time>2015-09-22T09:53:48Z</time>
      </trkpt>
      <trkpt lat="42.35133" lon="0.1287">
        <ele>781.6</ele>
        <time>2015-09-22T09:53:50Z</time>
      </trkpt>
      <trkpt lat="42.35135" lon="0.12865">
        <ele>781.7</ele>
        <time>2015-09-22T09:53:52Z</time>
      </trkpt>
      <trkpt lat="42.35138" lon="0.12861">
        <ele>781.9</ele>
        <time>2015-09-22T09:53:54Z</time>
      </trkpt>
      <trkpt lat="42.35138" lon="0.12857">
        <ele>781.8</ele>
        <time>2015-09-22T09:53:56Z</time>
      </trkpt>
      <trkpt lat="42.35136" lon="0.12853">
        <ele>781.5</ele>
        <time>2015-09-22T09:53:58Z</time>
      </trkpt>
      <trkpt lat="42.35135" lon="0.12849">
        <ele>781.3</ele>
        <time>2015-09-22T09:54:00Z</time>
      </trkpt>
      <trkpt lat="42.35137" lon="0.12846">
        <ele>781.4</ele>
        <time>2015-09-22T09:55:48Z</time>
      </trkpt>
      <trkpt lat="42.3514" lon="0.12843">
        <ele>781.6</ele>
        <time>2015-09-22T09:55:50Z</time>
      </trkpt>
      <trkpt lat="42.35144" lon="0.12841">
        <ele>781.9</ele>
        <time>2015-09-22T09:55:52Z</time>
      </trkpt>
      <trkpt lat="42.35147" lon="0.12839">
        <ele>782.1</ele>
        <time>2015-09-22T09:55:54Z</time>
      </trkpt>
      <trkpt lat="42.35149" lon="0.12836">
        <ele>782.2</ele>
        <time>2015-09-22T09:55:56Z</time>
      </trkpt>
      <trkpt lat="42.35152" lon="0.12834">
        <ele>782.5</ele>
        <time>2015-09-22T09:55:58Z</time>
      </trkpt>
      <trkpt lat="42.35156" lon="0.12834">
        <ele>782.8</ele>
        <time>2015-09-22T09:56:00Z</time>
      </trkpt>
      <trkpt lat="42.3516" lon="0.12834">
        <ele>783.2</ele>
        <time>2015-09-22T09:56:02Z</time>
      </trkpt>
      <trkpt lat="42.35163" lon="0.12834">
        <ele>783.4</ele>
        <time>2015-09-22T09:56:03Z</time>
      </trkpt>
      <trkpt lat="42.35165" lon="0.12834">
        <ele>783.7</ele>
        <time>2015-09-22T09:56:04Z</time>
      </trkpt>
      <trkpt lat="42.3517" lon="0.12833">
        <ele>784.1</ele>
        <time>2015-09-22T09:56:06Z</time>
      </trkpt>
      <trkpt lat="42.35175" lon="0.12832">
        <ele>784.4</ele>
        <time>2015-09-22T09:56:08Z</time>
      </trkpt>
      <trkpt lat="42.35178" lon="0.12829">
        <ele>784.6</ele>
        <time>2015-09-22T09:56:10Z</time>
      </trkpt>
      <trkpt lat="42.35181" lon="0.12825">
        <ele>784.7</ele>
        <time>2015-09-22T09:56:12Z</time>
      </trkpt>
      <trkpt lat="42.35185" lon="0.12825">
        <ele>785.1</ele>
        <time>2015-09-22T09:56:14Z</time>
      </trkpt>
      <trkpt lat="42.35189" lon="0.12826">
        <ele>785.5</ele>
        <time>2015-09-22T09:56:16Z</time>
      </trkpt>
      <trkpt lat="42.35192" lon="0.12827">
        <ele>785.8</ele>
        <time>2015-09-22T09:56:19Z</time>
      </trkpt>
      <trkpt lat="42.35195" lon="0.12828">
        <ele>786.1</ele>
        <time>2015-09-22T09:56:21Z</time>
      </trkpt>
      <trkpt lat="42.35199" lon="0.12827">
        <ele>786.5</ele>
        <time>2015-09-22T09:56:23Z</time>
      </trkpt>
      <trkpt lat="42.35203" lon="0.12826">
        <ele>786.7</ele>
        <time>2015-09-22T09:56:25Z</time>
      </trkpt>
      <trkpt lat="42.35206" lon="0.12824">
        <ele>786.9</ele>
        <time>2015-09-22T09:56:34Z</time>
      </trkpt>
      <trkpt lat="42.35209" lon="0.12821">
        <ele>787.1</ele>
        <time>2015-09-22T09:56:36Z</time>
      </trkpt>
      <trkpt lat="42.35212" lon="0.12817">
        <ele>787.2</ele>
        <time>2015-09-22T09:56:38Z</time>
      </trkpt>
      <trkpt lat="42.35215" lon="0.12812">
        <ele>787.2</ele>
        <time>2015-09-22T09:56:40Z</time>
      </trkpt>
      <trkpt lat="42.35217" lon="0.12808">
        <ele>787.3</ele>
        <time>2015-09-22T09:56:41Z</time>
      </trkpt>
      <trkpt lat="42.35219" lon="0.12805">
        <ele>787.4</ele>
        <time>2015-09-22T09:56:42Z</time>
      </trkpt>
      <trkpt lat="42.35221" lon="0.12801">
        <ele>787.5</ele>
        <time>2015-09-22T09:56:43Z</time>
      </trkpt>
      <trkpt lat="42.35223" lon="0.12799">
        <ele>787.6</ele>
        <time>2015-09-22T09:56:44Z</time>
      </trkpt>
      <trkpt lat="42.35225" lon="0.12796">
        <ele>787.7</ele>
        <time>2015-09-22T09:56:45Z</time>
      </trkpt>
      <trkpt lat="42.35228" lon="0.12794">
        <ele>787.9</ele>
        <time>2015-09-22T09:56:46Z</time>
      </trkpt>
      <trkpt lat="42.3523" lon="0.12791">
        <ele>788.1</ele>
        <time>2015-09-22T09:56:47Z</time>
      </trkpt>
      <trkpt lat="42.35232" lon="0.12788">
        <ele>788.3</ele>
        <time>2015-09-22T09:56:48Z</time>
      </trkpt>
      <trkpt lat="42.35234" lon="0.12785">
        <ele>788.5</ele>
        <time>2015-09-22T09:56:49Z</time>
      </trkpt>
      <trkpt lat="42.35236" lon="0.12782">
        <ele>788.6</ele>
        <time>2015-09-22T09:56:50Z</time>
      </trkpt>
      <trkpt lat="42.35237" lon="0.12779">
        <ele>788.8</ele>
        <time>2015-09-22T09:56:51Z</time>
      </trkpt>
      <trkpt lat="42.35238" lon="0.12775">
        <ele>788.9</ele>
        <time>2015-09-22T09:56:52Z</time>
      </trkpt>
      <trkpt lat="42.3524" lon="0.12772">
        <ele>789.1</ele>
        <time>2015-09-22T09:56:53Z</time>
      </trkpt>
      <trkpt lat="42.35242" lon="0.1277">
        <ele>789.3</ele>
        <time>2015-09-22T09:56:54Z</time>
      </trkpt>
      <trkpt lat="42.35244" lon="0.12767">
        <ele>789.6</ele>
        <time>2015-09-22T09:56:55Z</time>
      </trkpt>
      <trkpt lat="42.35246" lon="0.12764">
        <ele>789.8</ele>
        <time>2015-09-22T09:56:56Z</time>
      </trkpt>
      <trkpt lat="42.35248" lon="0.12761">
        <ele>790.1</ele>
        <time>2015-09-22T09:56:57Z</time>
      </trkpt>
      <trkpt lat="42.3525" lon="0.12758">
        <ele>790.4</ele>
        <time>2015-09-22T09:56:58Z</time>
      </trkpt>
      <trkpt lat="42.35252" lon="0.12754">
        <ele>790.7</ele>
        <time>2015-09-22T09:56:59Z</time>
      </trkpt>
      <trkpt lat="42.35253" lon="0.12751">
        <ele>790.9</ele>
        <time>2015-09-22T09:57:00Z</time>
      </trkpt>
      <trkpt lat="42.35255" lon="0.12748">
        <ele>791.2</ele>
        <time>2015-09-22T09:57:01Z</time>
      </trkpt>
      <trkpt lat="42.35256" lon="0.12744">
        <ele>791.4</ele>
        <time>2015-09-22T09:57:02Z</time>
      </trkpt>
      <trkpt lat="42.35257" lon="0.1274">
        <ele>791.6</ele>
        <time>2015-09-22T09:57:03Z</time>
      </trkpt>
      <trkpt lat="42.35259" lon="0.12737">
        <ele>791.9</ele>
        <time>2015-09-22T09:57:04Z</time>
      </trkpt>
      <trkpt lat="42.3526" lon="0.12734">
        <ele>792.2</ele>
        <time>2015-09-22T09:57:05Z</time>
      </trkpt>
      <trkpt lat="42.35265" lon="0.1273">
        <ele>792.9</ele>
        <time>2015-09-22T09:57:07Z</time>
      </trkpt>
      <trkpt lat="42.35267" lon="0.12728">
        <ele>793.4</ele>
        <time>2015-09-22T09:57:08Z</time>
      </trkpt>
      <trkpt lat="42.35269" lon="0.12725">
        <ele>793.8</ele>
        <time>2015-09-22T09:57:09Z</time>
      </trkpt>
      <trkpt lat="42.35271" lon="0.12722">
        <ele>794.1</ele>
        <time>2015-09-22T09:57:10Z</time>
      </trkpt>
      <trkpt lat="42.35273" lon="0.12718">
        <ele>794.5</ele>
        <time>2015-09-22T09:57:11Z</time>
      </trkpt>
      <trkpt lat="42.35274" lon="0.12713">
        <ele>794.9</ele>
        <time>2015-09-22T09:57:12Z</time>
      </trkpt>
      <trkpt lat="42.35275" lon="0.12708">
        <ele>795.3</ele>
        <time>2015-09-22T09:57:13Z</time>
      </trkpt>
      <trkpt lat="42.35277" lon="0.12704">
        <ele>795.6</ele>
        <time>2015-09-22T09:57:14Z</time>
      </trkpt>
      <trkpt lat="42.35278" lon="0.12699">
        <ele>795.9</ele>
        <time>2015-09-22T09:57:15Z</time>
      </trkpt>
      <trkpt lat="42.3528" lon="0.12695">
        <ele>796.2</ele>
        <time>2015-09-22T09:57:16Z</time>
      </trkpt>
      <trkpt lat="42.35281" lon="0.1269">
        <ele>796.6</ele>
        <time>2015-09-22T09:57:17Z</time>
      </trkpt>
      <trkpt lat="42.35283" lon="0.12686">
        <ele>797</ele>
        <time>2015-09-22T09:57:18Z</time>
      </trkpt>
      <trkpt lat="42.35285" lon="0.12683">
        <ele>797.5</ele>
        <time>2015-09-22T09:57:19Z</time>
      </trkpt>
      <trkpt lat="42.35288" lon="0.12679">
        <ele>798</ele>
        <time>2015-09-22T09:57:20Z</time>
      </trkpt>
      <trkpt lat="42.3529" lon="0.12676">
        <ele>798.5</ele>
        <time>2015-09-22T09:57:21Z</time>
      </trkpt>
      <trkpt lat="42.35293" lon="0.12672">
        <ele>798.9</ele>
        <time>2015-09-22T09:57:22Z</time>
      </trkpt>
      <trkpt lat="42.35296" lon="0.12668">
        <ele>799.2</ele>
        <time>2015-09-22T09:57:23Z</time>
      </trkpt>
      <trkpt lat="42.35299" lon="0.12664">
        <ele>799.5</ele>
        <time>2015-09-22T09:57:24Z</time>
      </trkpt>
      <trkpt lat="42.35302" lon="0.12661">
        <ele>799.9</ele>
        <time>2015-09-22T09:57:25Z</time>
      </trkpt>
      <trkpt lat="42.35305" lon="0.12658">
        <ele>800.2</ele>
        <time>2015-09-22T09:57:26Z</time>
      </trkpt>
      <trkpt lat="42.35308" lon="0.12654">
        <ele>800.6</ele>
        <time>2015-09-22T09:57:27Z</time>
      </trkpt>
      <trkpt lat="42.3531" lon="0.12651">
        <ele>800.9</ele>
        <time>2015-09-22T09:57:28Z</time>
      </trkpt>
      <trkpt lat="42.35313" lon="0.12647">
        <ele>801.3</ele>
        <time>2015-09-22T09:57:29Z</time>
      </trkpt>
      <trkpt lat="42.35315" lon="0.12644">
        <ele>801.6</ele>
        <time>2015-09-22T09:57:30Z</time>
      </trkpt>
      <trkpt lat="42.35317" lon="0.1264">
        <ele>802</ele>
        <time>2015-09-22T09:57:31Z</time>
      </trkpt>
      <trkpt lat="42.35318" lon="0.12636">
        <ele>802.3</ele>
        <time>2015-09-22T09:57:33Z</time>
      </trkpt>
      <trkpt lat="42.35318" lon="0.12631">
        <ele>802.6</ele>
        <time>2015-09-22T09:57:35Z</time>
      </trkpt>
      <trkpt lat="42.3532" lon="0.12627">
        <ele>803</ele>
        <time>2015-09-22T09:57:37Z</time>
      </trkpt>
      <trkpt lat="42.35322" lon="0.12623">
        <ele>803.1</ele>
        <time>2015-09-22T09:57:39Z</time>
      </trkpt>
      <trkpt lat="42.35324" lon="0.12619">
        <ele>803</ele>
        <time>2015-09-22T09:57:41Z</time>
      </trkpt>
      <trkpt lat="42.35327" lon="0.12615">
        <ele>802.9</ele>
        <time>2015-09-22T09:57:43Z</time>
      </trkpt>
      <trkpt lat="42.3533" lon="0.12611">
        <ele>802.9</ele>
        <time>2015-09-22T09:57:45Z</time>
      </trkpt>
      <trkpt lat="42.35333" lon="0.12607">
        <ele>803</ele>
        <time>2015-09-22T09:57:47Z</time>
      </trkpt>
      <trkpt lat="42.35336" lon="0.12603">
        <ele>803</ele>
        <time>2015-09-22T09:57:49Z</time>
      </trkpt>
      <trkpt lat="42.35339" lon="0.12598">
        <ele>802.9</ele>
        <time>2015-09-22T09:57:51Z</time>
      </trkpt>
      <trkpt lat="42.35342" lon="0.12593">
        <ele>802.8</ele>
        <time>2015-09-22T09:57:53Z</time>
      </trkpt>
      <trkpt lat="42.35345" lon="0.12588">
        <ele>802.7</ele>
        <time>2015-09-22T09:57:55Z</time>
      </trkpt>
      <trkpt lat="42.35348" lon="0.12584">
        <ele>802.6</ele>
        <time>2015-09-22T09:57:57Z</time>
      </trkpt>
      <trkpt lat="42.3535" lon="0.12579">
        <ele>802.4</ele>
        <time>2015-09-22T09:57:59Z</time>
      </trkpt>
      <trkpt lat="42.35352" lon="0.12574">
        <ele>802.2</ele>
        <time>2015-09-22T09:58:01Z</time>
      </trkpt>
      <trkpt lat="42.35353" lon="0.12569">
        <ele>801.9</ele>
        <time>2015-09-22T09:58:03Z</time>
      </trkpt>
      <trkpt lat="42.35354" lon="0.12564">
        <ele>801.5</ele>
        <time>2015-09-22T09:58:05Z</time>
      </trkpt>
      <trkpt lat="42.35354" lon="0.1256">
        <ele>801.3</ele>
        <time>2015-09-22T09:58:07Z</time>
      </trkpt>
      <trkpt lat="42.35355" lon="0.12555">
        <ele>800.9</ele>
        <time>2015-09-22T09:58:10Z</time>
      </trkpt>
      <trkpt lat="42.35356" lon="0.12552">
        <ele>800.8</ele>
        <time>2015-09-22T09:58:12Z</time>
      </trkpt>
      <trkpt lat="42.35358" lon="0.12549">
        <ele>800.7</ele>
        <time>2015-09-22T09:58:14Z</time>
      </trkpt>
      <trkpt lat="42.35361" lon="0.12548">
        <ele>801</ele>
        <time>2015-09-22T09:58:16Z</time>
      </trkpt>
      <trkpt lat="42.35364" lon="0.12548">
        <ele>801.4</ele>
        <time>2015-09-22T09:58:18Z</time>
      </trkpt>
      <trkpt lat="42.35367" lon="0.12547">
        <ele>801.6</ele>
        <time>2015-09-22T09:58:20Z</time>
      </trkpt>
      <trkpt lat="42.35371" lon="0.12545">
        <ele>801.8</ele>
        <time>2015-09-22T09:58:22Z</time>
      </trkpt>
      <trkpt lat="42.35375" lon="0.12544">
        <ele>802.2</ele>
        <time>2015-09-22T09:58:24Z</time>
      </trkpt>
      <trkpt lat="42.35378" lon="0.12543">
        <ele>802.4</ele>
        <time>2015-09-22T09:58:25Z</time>
      </trkpt>
      <trkpt lat="42.3538" lon="0.12542">
        <ele>802.6</ele>
        <time>2015-09-22T09:58:26Z</time>
      </trkpt>
      <trkpt lat="42.35383" lon="0.12541">
        <ele>802.7</ele>
        <time>2015-09-22T09:58:27Z</time>
      </trkpt>
      <trkpt lat="42.35386" lon="0.12539">
        <ele>802.9</ele>
        <time>2015-09-22T09:58:28Z</time>
      </trkpt>
      <trkpt lat="42.35388" lon="0.12538">
        <ele>803.1</ele>
        <time>2015-09-22T09:58:29Z</time>
      </trkpt>
      <trkpt lat="42.35391" lon="0.12537">
        <ele>803.3</ele>
        <time>2015-09-22T09:58:30Z</time>
      </trkpt>
      <trkpt lat="42.35394" lon="0.12535">
        <ele>803.5</ele>
        <time>2015-09-22T09:58:31Z</time>
      </trkpt>
      <trkpt lat="42.35396" lon="0.12534">
        <ele>803.6</ele>
        <time>2015-09-22T09:58:32Z</time>
      </trkpt>
      <trkpt lat="42.35399" lon="0.12532">
        <ele>803.8</ele>
        <time>2015-09-22T09:58:33Z</time>
      </trkpt>
      <trkpt lat="42.35402" lon="0.12531">
        <ele>804</ele>
        <time>2015-09-22T09:58:34Z</time>
      </trkpt>
      <trkpt lat="42.35404" lon="0.12528">
        <ele>804.2</ele>
        <time>2015-09-22T09:58:35Z</time>
      </trkpt>
      <trkpt lat="42.35406" lon="0.12526">
        <ele>804.3</ele>
        <time>2015-09-22T09:58:36Z</time>
      </trkpt>
      <trkpt lat="42.35409" lon="0.12523">
        <ele>804.3</ele>
        <time>2015-09-22T09:58:37Z</time>
      </trkpt>
      <trkpt lat="42.3541" lon="0.1252">
        <ele>804.4</ele>
        <time>2015-09-22T09:58:38Z</time>
      </trkpt>
      <trkpt lat="42.35412" lon="0.12517">
        <ele>804.4</ele>
        <time>2015-09-22T09:58:39Z</time>
      </trkpt>
      <trkpt lat="42.35413" lon="0.12514">
        <ele>804.4</ele>
        <time>2015-09-22T09:58:40Z</time>
      </trkpt>
      <trkpt lat="42.35415" lon="0.1251">
        <ele>804.3</ele>
        <time>2015-09-22T09:58:41Z</time>
      </trkpt>
      <trkpt lat="42.35416" lon="0.12507">
        <ele>804.3</ele>
        <time>2015-09-22T09:58:42Z</time>
      </trkpt>
      <trkpt lat="42.35417" lon="0.12503">
        <ele>804.2</ele>
        <time>2015-09-22T09:58:43Z</time>
      </trkpt>
      <trkpt lat="42.35418" lon="0.12499">
        <ele>804.1</ele>
        <time>2015-09-22T09:58:44Z</time>
      </trkpt>
      <trkpt lat="42.35419" lon="0.12493">
        <ele>804</ele>
        <time>2015-09-22T09:58:45Z</time>
      </trkpt>
      <trkpt lat="42.3542" lon="0.12487">
        <ele>803.8</ele>
        <time>2015-09-22T09:58:46Z</time>
      </trkpt>
      <trkpt lat="42.35422" lon="0.12481">
        <ele>803.7</ele>
        <time>2015-09-22T09:58:47Z</time>
      </trkpt>
      <trkpt lat="42.35423" lon="0.12473">
        <ele>803.6</ele>
        <time>2015-09-22T09:58:48Z</time>
      </trkpt>
      <trkpt lat="42.35425" lon="0.12466">
        <ele>803.5</ele>
        <time>2015-09-22T09:58:49Z</time>
      </trkpt>
      <trkpt lat="42.35426" lon="0.1246">
        <ele>803.5</ele>
        <time>2015-09-22T09:58:50Z</time>
      </trkpt>
      <trkpt lat="42.35428" lon="0.12453">
        <ele>804.1</ele>
        <time>2015-09-22T09:58:51Z</time>
      </trkpt>
      <trkpt lat="42.35429" lon="0.12447">
        <ele>804.7</ele>
        <time>2015-09-22T09:58:52Z</time>
      </trkpt>
      <trkpt lat="42.35429" lon="0.12439">
        <ele>805.1</ele>
        <time>2015-09-22T09:58:53Z</time>
      </trkpt>
      <trkpt lat="42.35429" lon="0.12432">
        <ele>805.4</ele>
        <time>2015-09-22T09:58:54Z</time>
      </trkpt>
      <trkpt lat="42.35428" lon="0.12424">
        <ele>805.5</ele>
        <time>2015-09-22T09:58:55Z</time>
      </trkpt>
      <trkpt lat="42.35426" lon="0.12417">
        <ele>805.4</ele>
        <time>2015-09-22T09:58:56Z</time>
      </trkpt>
      <trkpt lat="42.35424" lon="0.1241">
        <ele>805.2</ele>
        <time>2015-09-22T09:58:57Z</time>
      </trkpt>
      <trkpt lat="42.35421" lon="0.12403">
        <ele>805</ele>
        <time>2015-09-22T09:58:58Z</time>
      </trkpt>
      <trkpt lat="42.35417" lon="0.12401">
        <ele>804</ele>
        <time>2015-09-22T09:58:59Z</time>
      </trkpt>
      <trkpt lat="42.35414" lon="0.12398">
        <ele>803.5</ele>
        <time>2015-09-22T09:59:00Z</time>
      </trkpt>
      <trkpt lat="42.35412" lon="0.12394">
        <ele>803.1</ele>
        <time>2015-09-22T09:59:02Z</time>
      </trkpt>
      <trkpt lat="42.3541" lon="0.12389">
        <ele>802.8</ele>
        <time>2015-09-22T09:59:05Z</time>
      </trkpt>
      <trkpt lat="42.35409" lon="0.12386">
        <ele>802.4</ele>
        <time>2015-09-22T09:59:10Z</time>
      </trkpt>
      <trkpt lat="42.35407" lon="0.12383">
        <ele>802.2</ele>
        <time>2015-09-22T09:59:13Z</time>
      </trkpt>
      <trkpt lat="42.35406" lon="0.12378">
        <ele>802.1</ele>
        <time>2015-09-22T09:59:16Z</time>
      </trkpt>
      <trkpt lat="42.35405" lon="0.12374">
        <ele>801.8</ele>
        <time>2015-09-22T09:59:20Z</time>
      </trkpt>
      <trkpt lat="42.35402" lon="0.12371">
        <ele>801.6</ele>
        <time>2015-09-22T09:59:23Z</time>
      </trkpt>
      <trkpt lat="42.35401" lon="0.12367">
        <ele>801.5</ele>
        <time>2015-09-22T09:59:25Z</time>
      </trkpt>
      <trkpt lat="42.354" lon="0.12363">
        <ele>801.8</ele>
        <time>2015-09-22T09:59:27Z</time>
      </trkpt>
      <trkpt lat="42.35399" lon="0.12358">
        <ele>802.2</ele>
        <time>2015-09-22T09:59:29Z</time>
      </trkpt>
      <trkpt lat="42.35399" lon="0.12354">
        <ele>802.5</ele>
        <time>2015-09-22T09:59:31Z</time>
      </trkpt>
      <trkpt lat="42.35398" lon="0.12349">
        <ele>802.8</ele>
        <time>2015-09-22T09:59:33Z</time>
      </trkpt>
      <trkpt lat="42.35398" lon="0.12345">
        <ele>803.1</ele>
        <time>2015-09-22T09:59:35Z</time>
      </trkpt>
      <trkpt lat="42.35399" lon="0.12342">
        <ele>803.6</ele>
        <time>2015-09-22T09:59:41Z</time>
      </trkpt>
      <trkpt lat="42.354" lon="0.12337">
        <ele>804.4</ele>
        <time>2015-09-22T09:59:45Z</time>
      </trkpt>
      <trkpt lat="42.35401" lon="0.12333">
        <ele>805</ele>
        <time>2015-09-22T09:59:49Z</time>
      </trkpt>
      <trkpt lat="42.35402" lon="0.1233">
        <ele>805.7</ele>
        <time>2015-09-22T09:59:57Z</time>
      </trkpt>
      <trkpt lat="42.35403" lon="0.12326">
        <ele>806.2</ele>
        <time>2015-09-22T09:59:59Z</time>
      </trkpt>
      <trkpt lat="42.35404" lon="0.12321">
        <ele>807</ele>
        <time>2015-09-22T10:00:01Z</time>
      </trkpt>
      <trkpt lat="42.35405" lon="0.12317">
        <ele>807.7</ele>
        <time>2015-09-22T10:00:03Z</time>
      </trkpt>
      <trkpt lat="42.35407" lon="0.12312">
        <ele>808.5</ele>
        <time>2015-09-22T10:00:05Z</time>
      </trkpt>
      <trkpt lat="42.35408" lon="0.12308">
        <ele>809.2</ele>
        <time>2015-09-22T10:00:07Z</time>
      </trkpt>
      <trkpt lat="42.3541" lon="0.12304">
        <ele>809.9</ele>
        <time>2015-09-22T10:00:09Z</time>
      </trkpt>
      <trkpt lat="42.35411" lon="0.123">
        <ele>810.5</ele>
        <time>2015-09-22T10:00:11Z</time>
      </trkpt>
      <trkpt lat="42.35412" lon="0.12296">
        <ele>811.1</ele>
        <time>2015-09-22T10:00:13Z</time>
      </trkpt>
      <trkpt lat="42.35412" lon="0.12292">
        <ele>811.5</ele>
        <time>2015-09-22T10:00:15Z</time>
      </trkpt>
      <trkpt lat="42.35412" lon="0.12288">
        <ele>811.9</ele>
        <time>2015-09-22T10:00:18Z</time>
      </trkpt>
      <trkpt lat="42.35413" lon="0.12284">
        <ele>812.6</ele>
        <time>2015-09-22T10:00:23Z</time>
      </trkpt>
      <trkpt lat="42.35415" lon="0.1228">
        <ele>813.3</ele>
        <time>2015-09-22T10:00:27Z</time>
      </trkpt>
      <trkpt lat="42.35416" lon="0.12277">
        <ele>813.9</ele>
        <time>2015-09-22T10:00:32Z</time>
      </trkpt>
      <trkpt lat="42.35416" lon="0.12272">
        <ele>814.4</ele>
        <time>2015-09-22T10:00:38Z</time>
      </trkpt>
      <trkpt lat="42.35417" lon="0.12268">
        <ele>815.1</ele>
        <time>2015-09-22T10:00:46Z</time>
      </trkpt>
      <trkpt lat="42.35417" lon="0.12262">
        <ele>815.6</ele>
        <time>2015-09-22T10:00:49Z</time>
      </trkpt>
      <trkpt lat="42.35415" lon="0.12258">
        <ele>815.6</ele>
        <time>2015-09-22T10:00:52Z</time>
      </trkpt>
      <trkpt lat="42.35415" lon="0.12253">
        <ele>816.1</ele>
        <time>2015-09-22T10:00:55Z</time>
      </trkpt>
      <trkpt lat="42.35414" lon="0.1225">
        <ele>816.3</ele>
        <time>2015-09-22T10:01:02Z</time>
      </trkpt>
      <trkpt lat="42.35415" lon="0.12245">
        <ele>816.8</ele>
        <time>2015-09-22T10:01:07Z</time>
      </trkpt>
      <trkpt lat="42.35415" lon="0.12241">
        <ele>817.3</ele>
        <time>2015-09-22T10:01:11Z</time>
      </trkpt>
      <trkpt lat="42.35417" lon="0.12238">
        <ele>818.1</ele>
        <time>2015-09-22T10:01:21Z</time>
      </trkpt>
      <trkpt lat="42.35419" lon="0.12235">
        <ele>818.8</ele>
        <time>2015-09-22T10:01:23Z</time>
      </trkpt>
      <trkpt lat="42.35421" lon="0.12232">
        <ele>819.5</ele>
        <time>2015-09-22T10:01:25Z</time>
      </trkpt>
      <trkpt lat="42.35422" lon="0.12229">
        <ele>820.2</ele>
        <time>2015-09-22T10:01:27Z</time>
      </trkpt>
      <trkpt lat="42.35423" lon="0.12224">
        <ele>820.8</ele>
        <time>2015-09-22T10:01:30Z</time>
      </trkpt>
      <trkpt lat="42.35424" lon="0.1222">
        <ele>821.4</ele>
        <time>2015-09-22T10:01:36Z</time>
      </trkpt>
      <trkpt lat="42.35425" lon="0.12215">
        <ele>822.4</ele>
        <time>2015-09-22T10:01:39Z</time>
      </trkpt>
      <trkpt lat="42.35426" lon="0.1221">
        <ele>823</ele>
        <time>2015-09-22T10:01:41Z</time>
      </trkpt>
      <trkpt lat="42.35425" lon="0.12206">
        <ele>822.9</ele>
        <time>2015-09-22T10:01:43Z</time>
      </trkpt>
      <trkpt lat="42.35423" lon="0.12202">
        <ele>822.5</ele>
        <time>2015-09-22T10:01:45Z</time>
      </trkpt>
      <trkpt lat="42.35423" lon="0.12199">
        <ele>822.4</ele>
        <time>2015-09-22T10:01:47Z</time>
      </trkpt>
      <trkpt lat="42.35422" lon="0.12195">
        <ele>822.2</ele>
        <time>2015-09-22T10:01:49Z</time>
      </trkpt>
      <trkpt lat="42.35422" lon="0.12191">
        <ele>822.1</ele>
        <time>2015-09-22T10:01:51Z</time>
      </trkpt>
      <trkpt lat="42.35422" lon="0.12187">
        <ele>822</ele>
        <time>2015-09-22T10:01:53Z</time>
      </trkpt>
      <trkpt lat="42.35421" lon="0.12183">
        <ele>821.8</ele>
        <time>2015-09-22T10:01:55Z</time>
      </trkpt>
      <trkpt lat="42.35421" lon="0.12179">
        <ele>821.6</ele>
        <time>2015-09-22T10:01:57Z</time>
      </trkpt>
      <trkpt lat="42.35421" lon="0.12174">
        <ele>821.6</ele>
        <time>2015-09-22T10:01:59Z</time>
      </trkpt>
      <trkpt lat="42.35422" lon="0.1217">
        <ele>821.8</ele>
        <time>2015-09-22T10:02:01Z</time>
      </trkpt>
      <trkpt lat="42.35422" lon="0.12165">
        <ele>821.9</ele>
        <time>2015-09-22T10:02:03Z</time>
      </trkpt>
      <trkpt lat="42.35422" lon="0.12158">
        <ele>821.6</ele>
        <time>2015-09-22T10:02:05Z</time>
      </trkpt>
      <trkpt lat="42.35422" lon="0.12153">
        <ele>821.6</ele>
        <time>2015-09-22T10:02:06Z</time>
      </trkpt>
      <trkpt lat="42.35423" lon="0.12148">
        <ele>821.8</ele>
        <time>2015-09-22T10:02:07Z</time>
      </trkpt>
      <trkpt lat="42.35424" lon="0.12144">
        <ele>822</ele>
        <time>2015-09-22T10:02:08Z</time>
      </trkpt>
      <trkpt lat="42.35424" lon="0.12139">
        <ele>822.2</ele>
        <time>2015-09-22T10:02:09Z</time>
      </trkpt>
      <trkpt lat="42.35425" lon="0.12134">
        <ele>822.5</ele>
        <time>2015-09-22T10:02:10Z</time>
      </trkpt>
      <trkpt lat="42.35427" lon="0.12129">
        <ele>822.9</ele>
        <time>2015-09-22T10:02:11Z</time>
      </trkpt>
      <trkpt lat="42.35428" lon="0.12124">
        <ele>823.4</ele>
        <time>2015-09-22T10:02:12Z</time>
      </trkpt>
      <trkpt lat="42.3543" lon="0.12119">
        <ele>823.6</ele>
        <time>2015-09-22T10:02:13Z</time>
      </trkpt>
      <trkpt lat="42.35431" lon="0.12114">
        <ele>823.8</ele>
        <time>2015-09-22T10:02:14Z</time>
      </trkpt>
      <trkpt lat="42.35432" lon="0.12109">
        <ele>823.9</ele>
        <time>2015-09-22T10:02:15Z</time>
      </trkpt>
      <trkpt lat="42.35434" lon="0.12105">
        <ele>824.2</ele>
        <time>2015-09-22T10:02:16Z</time>
      </trkpt>
      <trkpt lat="42.35436" lon="0.12101">
        <ele>824.5</ele>
        <time>2015-09-22T10:02:17Z</time>
      </trkpt>
      <trkpt lat="42.35437" lon="0.12097">
        <ele>824.8</ele>
        <time>2015-09-22T10:02:18Z</time>
      </trkpt>
      <trkpt lat="42.35439" lon="0.12093">
        <ele>825</ele>
        <time>2015-09-22T10:02:19Z</time>
      </trkpt>
      <trkpt lat="42.3544" lon="0.12089">
        <ele>825.2</ele>
        <time>2015-09-22T10:02:20Z</time>
      </trkpt>
      <trkpt lat="42.35442" lon="0.12086">
        <ele>825.5</ele>
        <time>2015-09-22T10:02:21Z</time>
      </trkpt>
      <trkpt lat="42.35443" lon="0.12083">
        <ele>825.9</ele>
        <time>2015-09-22T10:02:22Z</time>
      </trkpt>
      <trkpt lat="42.35446" lon="0.1208">
        <ele>826.5</ele>
        <time>2015-09-22T10:02:23Z</time>
      </trkpt>
      <trkpt lat="42.35448" lon="0.12078">
        <ele>827</ele>
        <time>2015-09-22T10:02:24Z</time>
      </trkpt>
      <trkpt lat="42.3545" lon="0.12075">
        <ele>827.5</ele>
        <time>2015-09-22T10:02:25Z</time>
      </trkpt>
      <trkpt lat="42.35454" lon="0.12071">
        <ele>828.7</ele>
        <time>2015-09-22T10:02:27Z</time>
      </trkpt>
      <trkpt lat="42.35459" lon="0.12068">
        <ele>829.9</ele>
        <time>2015-09-22T10:02:29Z</time>
      </trkpt>
      <trkpt lat="42.35463" lon="0.12065">
        <ele>830.5</ele>
        <time>2015-09-22T10:02:31Z</time>
      </trkpt>
      <trkpt lat="42.35467" lon="0.12063">
        <ele>831</ele>
        <time>2015-09-22T10:02:33Z</time>
      </trkpt>
      <trkpt lat="42.35471" lon="0.12062">
        <ele>831.7</ele>
        <time>2015-09-22T10:02:35Z</time>
      </trkpt>
      <trkpt lat="42.35475" lon="0.12061">
        <ele>832.5</ele>
        <time>2015-09-22T10:02:37Z</time>
      </trkpt>
      <trkpt lat="42.3548" lon="0.12061">
        <ele>833.4</ele>
        <time>2015-09-22T10:02:39Z</time>
      </trkpt>
      <trkpt lat="42.35485" lon="0.1206">
        <ele>834.3</ele>
        <time>2015-09-22T10:02:41Z</time>
      </trkpt>
      <trkpt lat="42.3549" lon="0.12059">
        <ele>835.2</ele>
        <time>2015-09-22T10:02:43Z</time>
      </trkpt>
      <trkpt lat="42.35495" lon="0.12057">
        <ele>836.2</ele>
        <time>2015-09-22T10:02:45Z</time>
      </trkpt>
      <trkpt lat="42.355" lon="0.12054">
        <ele>837.2</ele>
        <time>2015-09-22T10:02:47Z</time>
      </trkpt>
      <trkpt lat="42.35504" lon="0.1205">
        <ele>838.2</ele>
        <time>2015-09-22T10:02:49Z</time>
      </trkpt>
      <trkpt lat="42.35508" lon="0.12046">
        <ele>839.1</ele>
        <time>2015-09-22T10:02:51Z</time>
      </trkpt>
      <trkpt lat="42.35512" lon="0.12042">
        <ele>840.3</ele>
        <time>2015-09-22T10:02:53Z</time>
      </trkpt>
      <trkpt lat="42.35515" lon="0.12039">
        <ele>840.5</ele>
        <time>2015-09-22T10:02:54Z</time>
      </trkpt>
      <trkpt lat="42.35517" lon="0.12037">
        <ele>840.6</ele>
        <time>2015-09-22T10:02:55Z</time>
      </trkpt>
      <trkpt lat="42.35519" lon="0.12033">
        <ele>840.6</ele>
        <time>2015-09-22T10:02:56Z</time>
      </trkpt>
      <trkpt lat="42.35521" lon="0.1203">
        <ele>840.6</ele>
        <time>2015-09-22T10:02:57Z</time>
      </trkpt>
      <trkpt lat="42.35523" lon="0.12026">
        <ele>840.4</ele>
        <time>2015-09-22T10:02:58Z</time>
      </trkpt>
      <trkpt lat="42.35524" lon="0.12022">
        <ele>840.2</ele>
        <time>2015-09-22T10:02:59Z</time>
      </trkpt>
      <trkpt lat="42.35526" lon="0.12018">
        <ele>840</ele>
        <time>2015-09-22T10:03:00Z</time>
      </trkpt>
      <trkpt lat="42.35528" lon="0.12015">
        <ele>839.8</ele>
        <time>2015-09-22T10:03:01Z</time>
      </trkpt>
      <trkpt lat="42.35529" lon="0.12011">
        <ele>839.6</ele>
        <time>2015-09-22T10:03:02Z</time>
      </trkpt>
      <trkpt lat="42.35531" lon="0.12007">
        <ele>839.4</ele>
        <time>2015-09-22T10:03:03Z</time>
      </trkpt>
      <trkpt lat="42.35533" lon="0.12004">
        <ele>839.2</ele>
        <time>2015-09-22T10:03:04Z</time>
      </trkpt>
      <trkpt lat="42.35535" lon="0.12">
        <ele>839.1</ele>
        <time>2015-09-22T10:03:05Z</time>
      </trkpt>
      <trkpt lat="42.35536" lon="0.11997">
        <ele>838.9</ele>
        <time>2015-09-22T10:03:06Z</time>
      </trkpt>
      <trkpt lat="42.35538" lon="0.11993">
        <ele>838.6</ele>
        <time>2015-09-22T10:03:07Z</time>
      </trkpt>
      <trkpt lat="42.35539" lon="0.11989">
        <ele>838.3</ele>
        <time>2015-09-22T10:03:08Z</time>
      </trkpt>
      <trkpt lat="42.3554" lon="0.11986">
        <ele>838</ele>
        <time>2015-09-22T10:03:09Z</time>
      </trkpt>
      <trkpt lat="42.35541" lon="0.11982">
        <ele>837.7</ele>
        <time>2015-09-22T10:03:10Z</time>
      </trkpt>
      <trkpt lat="42.35543" lon="0.11979">
        <ele>837.2</ele>
        <time>2015-09-22T10:03:11Z</time>
      </trkpt>
      <trkpt lat="42.35544" lon="0.11975">
        <ele>836.8</ele>
        <time>2015-09-22T10:03:12Z</time>
      </trkpt>
      <trkpt lat="42.35545" lon="0.11971">
        <ele>836.3</ele>
        <time>2015-09-22T10:03:13Z</time>
      </trkpt>
      <trkpt lat="42.35547" lon="0.11967">
        <ele>836</ele>
        <time>2015-09-22T10:03:14Z</time>
      </trkpt>
      <trkpt lat="42.35549" lon="0.11963">
        <ele>835.7</ele>
        <time>2015-09-22T10:03:15Z</time>
      </trkpt>
      <trkpt lat="42.35551" lon="0.11959">
        <ele>835.6</ele>
        <time>2015-09-22T10:03:16Z</time>
      </trkpt>
      <trkpt lat="42.35554" lon="0.11955">
        <ele>835.8</ele>
        <time>2015-09-22T10:03:17Z</time>
      </trkpt>
      <trkpt lat="42.35556" lon="0.11951">
        <ele>836</ele>
        <time>2015-09-22T10:03:18Z</time>
      </trkpt>
      <trkpt lat="42.35559" lon="0.11947">
        <ele>836.3</ele>
        <time>2015-09-22T10:03:19Z</time>
      </trkpt>
      <trkpt lat="42.35561" lon="0.11943">
        <ele>836.6</ele>
        <time>2015-09-22T10:03:20Z</time>
      </trkpt>
      <trkpt lat="42.35563" lon="0.11939">
        <ele>836.8</ele>
        <time>2015-09-22T10:03:21Z</time>
      </trkpt>
      <trkpt lat="42.35566" lon="0.11935">
        <ele>837.1</ele>
        <time>2015-09-22T10:03:22Z</time>
      </trkpt>
      <trkpt lat="42.35568" lon="0.11932">
        <ele>837.4</ele>
        <time>2015-09-22T10:03:23Z</time>
      </trkpt>
      <trkpt lat="42.3557" lon="0.11928">
        <ele>837.7</ele>
        <time>2015-09-22T10:03:24Z</time>
      </trkpt>
      <trkpt lat="42.35572" lon="0.11924">
        <ele>838</ele>
        <time>2015-09-22T10:03:25Z</time>
      </trkpt>
      <trkpt lat="42.35574" lon="0.1192">
        <ele>838.3</ele>
        <time>2015-09-22T10:03:26Z</time>
      </trkpt>
      <trkpt lat="42.35576" lon="0.11916">
        <ele>838.5</ele>
        <time>2015-09-22T10:03:27Z</time>
      </trkpt>
      <trkpt lat="42.35577" lon="0.11912">
        <ele>838.7</ele>
        <time>2015-09-22T10:03:29Z</time>
      </trkpt>
      <trkpt lat="42.35578" lon="0.11907">
        <ele>838.8</ele>
        <time>2015-09-22T10:03:31Z</time>
      </trkpt>
      <trkpt lat="42.3558" lon="0.11904">
        <ele>839.1</ele>
        <time>2015-09-22T10:03:33Z</time>
      </trkpt>
      <trkpt lat="42.35582" lon="0.11901">
        <ele>839.5</ele>
        <time>2015-09-22T10:03:35Z</time>
      </trkpt>
      <trkpt lat="42.35583" lon="0.11896">
        <ele>839.7</ele>
        <time>2015-09-22T10:03:37Z</time>
      </trkpt>
      <trkpt lat="42.35584" lon="0.11892">
        <ele>839.8</ele>
        <time>2015-09-22T10:03:39Z</time>
      </trkpt>
      <trkpt lat="42.35585" lon="0.11889">
        <ele>840.1</ele>
        <time>2015-09-22T10:03:41Z</time>
      </trkpt>
      <trkpt lat="42.35588" lon="0.11886">
        <ele>840.6</ele>
        <time>2015-09-22T10:03:43Z</time>
      </trkpt>
      <trkpt lat="42.35591" lon="0.11883">
        <ele>841.2</ele>
        <time>2015-09-22T10:03:45Z</time>
      </trkpt>
      <trkpt lat="42.35594" lon="0.1188">
        <ele>841.9</ele>
        <time>2015-09-22T10:03:47Z</time>
      </trkpt>
      <trkpt lat="42.35597" lon="0.11878">
        <ele>842.6</ele>
        <time>2015-09-22T10:03:49Z</time>
      </trkpt>
      <trkpt lat="42.356" lon="0.11875">
        <ele>843.3</ele>
        <time>2015-09-22T10:03:51Z</time>
      </trkpt>
      <trkpt lat="42.35602" lon="0.1187">
        <ele>843.6</ele>
        <time>2015-09-22T10:03:53Z</time>
      </trkpt>
      <trkpt lat="42.35603" lon="0.11866">
        <ele>843.7</ele>
        <time>2015-09-22T10:03:55Z</time>
      </trkpt>
      <trkpt lat="42.35604" lon="0.11861">
        <ele>843.9</ele>
        <time>2015-09-22T10:03:57Z</time>
      </trkpt>
      <trkpt lat="42.35606" lon="0.11858">
        <ele>844.2</ele>
        <time>2015-09-22T10:03:59Z</time>
      </trkpt>
      <trkpt lat="42.35608" lon="0.11855">
        <ele>844.7</ele>
        <time>2015-09-22T10:04:06Z</time>
      </trkpt>
      <trkpt lat="42.3561" lon="0.11853">
        <ele>845.3</ele>
        <time>2015-09-22T10:04:09Z</time>
      </trkpt>
      <trkpt lat="42.35613" lon="0.11849">
        <ele>845.9</ele>
        <time>2015-09-22T10:04:11Z</time>
      </trkpt>
      <trkpt lat="42.35615" lon="0.11844">
        <ele>846.4</ele>
        <time>2015-09-22T10:04:13Z</time>
      </trkpt>
      <trkpt lat="42.35618" lon="0.11838">
        <ele>847.1</ele>
        <time>2015-09-22T10:04:15Z</time>
      </trkpt>
      <trkpt lat="42.35619" lon="0.11831">
        <ele>847.4</ele>
        <time>2015-09-22T10:04:17Z</time>
      </trkpt>
      <trkpt lat="42.35619" lon="0.11824">
        <ele>847.3</ele>
        <time>2015-09-22T10:04:19Z</time>
      </trkpt>
      <trkpt lat="42.35619" lon="0.11818">
        <ele>847.1</ele>
        <time>2015-09-22T10:04:21Z</time>
      </trkpt>
      <trkpt lat="42.35617" lon="0.11812">
        <ele>846.6</ele>
        <time>2015-09-22T10:04:23Z</time>
      </trkpt>
      <trkpt lat="42.35616" lon="0.11805">
        <ele>846.1</ele>
        <time>2015-09-22T10:04:25Z</time>
      </trkpt>
      <trkpt lat="42.35615" lon="0.11797">
        <ele>845.8</ele>
        <time>2015-09-22T10:04:27Z</time>
      </trkpt>
      <trkpt lat="42.35615" lon="0.11793">
        <ele>845.9</ele>
        <time>2015-09-22T10:04:28Z</time>
      </trkpt>
      <trkpt lat="42.35616" lon="0.11789">
        <ele>846</ele>
        <time>2015-09-22T10:04:29Z</time>
      </trkpt>
      <trkpt lat="42.35618" lon="0.11785">
        <ele>846.1</ele>
        <time>2015-09-22T10:04:30Z</time>
      </trkpt>
      <trkpt lat="42.3562" lon="0.11782">
        <ele>846.6</ele>
        <time>2015-09-22T10:04:31Z</time>
      </trkpt>
      <trkpt lat="42.35622" lon="0.1178">
        <ele>847.3</ele>
        <time>2015-09-22T10:04:32Z</time>
      </trkpt>
      <trkpt lat="42.35625" lon="0.11778">
        <ele>848.1</ele>
        <time>2015-09-22T10:04:33Z</time>
      </trkpt>
      <trkpt lat="42.35627" lon="0.11777">
        <ele>848.4</ele>
        <time>2015-09-22T10:04:34Z</time>
      </trkpt>
      <trkpt lat="42.3563" lon="0.11775">
        <ele>848.6</ele>
        <time>2015-09-22T10:04:35Z</time>
      </trkpt>
      <trkpt lat="42.35632" lon="0.11772">
        <ele>848.7</ele>
        <time>2015-09-22T10:04:36Z</time>
      </trkpt>
      <trkpt lat="42.35634" lon="0.11769">
        <ele>848.9</ele>
        <time>2015-09-22T10:04:37Z</time>
      </trkpt>
      <trkpt lat="42.35636" lon="0.11766">
        <ele>849</ele>
        <time>2015-09-22T10:04:38Z</time>
      </trkpt>
      <trkpt lat="42.35638" lon="0.11763">
        <ele>849.1</ele>
        <time>2015-09-22T10:04:39Z</time>
      </trkpt>
      <trkpt lat="42.35641" lon="0.11758">
        <ele>849.4</ele>
        <time>2015-09-22T10:04:41Z</time>
      </trkpt>
      <trkpt lat="42.35644" lon="0.11754">
        <ele>849.8</ele>
        <time>2015-09-22T10:04:43Z</time>
      </trkpt>
      <trkpt lat="42.35647" lon="0.1175">
        <ele>850.2</ele>
        <time>2015-09-22T10:04:45Z</time>
      </trkpt>
      <trkpt lat="42.3565" lon="0.11746">
        <ele>850.6</ele>
        <time>2015-09-22T10:04:47Z</time>
      </trkpt>
      <trkpt lat="42.35652" lon="0.11742">
        <ele>851</ele>
        <time>2015-09-22T10:04:49Z</time>
      </trkpt>
      <trkpt lat="42.35656" lon="0.11739">
        <ele>851.7</ele>
        <time>2015-09-22T10:04:51Z</time>
      </trkpt>
      <trkpt lat="42.3566" lon="0.11736">
        <ele>852.4</ele>
        <time>2015-09-22T10:04:53Z</time>
      </trkpt>
      <trkpt lat="42.35664" lon="0.11733">
        <ele>853.3</ele>
        <time>2015-09-22T10:04:55Z</time>
      </trkpt>
      <trkpt lat="42.35668" lon="0.1173">
        <ele>854.3</ele>
        <time>2015-09-22T10:04:57Z</time>
      </trkpt>
      <trkpt lat="42.35671" lon="0.11728">
        <ele>854.9</ele>
        <time>2015-09-22T10:04:58Z</time>
      </trkpt>
      <trkpt lat="42.35674" lon="0.11726">
        <ele>855.5</ele>
        <time>2015-09-22T10:04:59Z</time>
      </trkpt>
      <trkpt lat="42.35676" lon="0.11724">
        <ele>856.2</ele>
        <time>2015-09-22T10:05:00Z</time>
      </trkpt>
      <trkpt lat="42.35678" lon="0.11721">
        <ele>856.8</ele>
        <time>2015-09-22T10:05:01Z</time>
      </trkpt>
      <trkpt lat="42.35681" lon="0.11719">
        <ele>857.5</ele>
        <time>2015-09-22T10:05:02Z</time>
      </trkpt>
      <trkpt lat="42.35683" lon="0.11716">
        <ele>858.2</ele>
        <time>2015-09-22T10:05:03Z</time>
      </trkpt>
      <trkpt lat="42.35685" lon="0.11714">
        <ele>858.8</ele>
        <time>2015-09-22T10:05:04Z</time>
      </trkpt>
      <trkpt lat="42.35687" lon="0.11711">
        <ele>859.5</ele>
        <time>2015-09-22T10:05:05Z</time>
      </trkpt>
      <trkpt lat="42.35689" lon="0.11708">
        <ele>860.1</ele>
        <time>2015-09-22T10:05:06Z</time>
      </trkpt>
      <trkpt lat="42.35692" lon="0.11706">
        <ele>860.4</ele>
        <time>2015-09-22T10:05:07Z</time>
      </trkpt>
      <trkpt lat="42.35694" lon="0.11704">
        <ele>860.6</ele>
        <time>2015-09-22T10:05:08Z</time>
      </trkpt>
      <trkpt lat="42.35696" lon="0.11701">
        <ele>860.7</ele>
        <time>2015-09-22T10:05:09Z</time>
      </trkpt>
      <trkpt lat="42.35698" lon="0.11699">
        <ele>860.8</ele>
        <time>2015-09-22T10:05:10Z</time>
      </trkpt>
      <trkpt lat="42.357" lon="0.11695">
        <ele>860.7</ele>
        <time>2015-09-22T10:05:11Z</time>
      </trkpt>
      <trkpt lat="42.35702" lon="0.11692">
        <ele>860.5</ele>
        <time>2015-09-22T10:05:12Z</time>
      </trkpt>
      <trkpt lat="42.35703" lon="0.11688">
        <ele>860.2</ele>
        <time>2015-09-22T10:05:13Z</time>
      </trkpt>
      <trkpt lat="42.35704" lon="0.11685">
        <ele>859.9</ele>
        <time>2015-09-22T10:05:14Z</time>
      </trkpt>
      <trkpt lat="42.35705" lon="0.11681">
        <ele>859.5</ele>
        <time>2015-09-22T10:05:15Z</time>
      </trkpt>
      <trkpt lat="42.35705" lon="0.11677">
        <ele>859</ele>
        <time>2015-09-22T10:05:16Z</time>
      </trkpt>
      <trkpt lat="42.35706" lon="0.11673">
        <ele>858.4</ele>
        <time>2015-09-22T10:05:17Z</time>
      </trkpt>
      <trkpt lat="42.35706" lon="0.1167">
        <ele>857.9</ele>
        <time>2015-09-22T10:05:18Z</time>
      </trkpt>
      <trkpt lat="42.35707" lon="0.11666">
        <ele>857.5</ele>
        <time>2015-09-22T10:05:19Z</time>
      </trkpt>
      <trkpt lat="42.35708" lon="0.11662">
        <ele>857.2</ele>
        <time>2015-09-22T10:05:20Z</time>
      </trkpt>
      <trkpt lat="42.35709" lon="0.11658">
        <ele>856.6</ele>
        <time>2015-09-22T10:05:21Z</time>
      </trkpt>
      <trkpt lat="42.35711" lon="0.11654">
        <ele>855.8</ele>
        <time>2015-09-22T10:05:22Z</time>
      </trkpt>
      <trkpt lat="42.35712" lon="0.1165">
        <ele>855.1</ele>
        <time>2015-09-22T10:05:23Z</time>
      </trkpt>
      <trkpt lat="42.35713" lon="0.11646">
        <ele>854.5</ele>
        <time>2015-09-22T10:05:24Z</time>
      </trkpt>
      <trkpt lat="42.35713" lon="0.11642">
        <ele>853.9</ele>
        <time>2015-09-22T10:05:25Z</time>
      </trkpt>
      <trkpt lat="42.35714" lon="0.11638">
        <ele>853.3</ele>
        <time>2015-09-22T10:05:26Z</time>
      </trkpt>
      <trkpt lat="42.35715" lon="0.11634">
        <ele>852.7</ele>
        <time>2015-09-22T10:05:27Z</time>
      </trkpt>
      <trkpt lat="42.35715" lon="0.1163">
        <ele>852.1</ele>
        <time>2015-09-22T10:05:28Z</time>
      </trkpt>
      <trkpt lat="42.35715" lon="0.11626">
        <ele>851.4</ele>
        <time>2015-09-22T10:05:29Z</time>
      </trkpt>
      <trkpt lat="42.35715" lon="0.11622">
        <ele>851</ele>
        <time>2015-09-22T10:05:30Z</time>
      </trkpt>
      <trkpt lat="42.35715" lon="0.11618">
        <ele>850.6</ele>
        <time>2015-09-22T10:05:31Z</time>
      </trkpt>
      <trkpt lat="42.35715" lon="0.11614">
        <ele>850.3</ele>
        <time>2015-09-22T10:05:32Z</time>
      </trkpt>
      <trkpt lat="42.35716" lon="0.1161">
        <ele>849.9</ele>
        <time>2015-09-22T10:05:33Z</time>
      </trkpt>
      <trkpt lat="42.35716" lon="0.11605">
        <ele>849.6</ele>
        <time>2015-09-22T10:05:34Z</time>
      </trkpt>
      <trkpt lat="42.35717" lon="0.11601">
        <ele>849.2</ele>
        <time>2015-09-22T10:05:35Z</time>
      </trkpt>
      <trkpt lat="42.35718" lon="0.11595">
        <ele>848.9</ele>
        <time>2015-09-22T10:05:36Z</time>
      </trkpt>
      <trkpt lat="42.35719" lon="0.1159">
        <ele>848.6</ele>
        <time>2015-09-22T10:05:37Z</time>
      </trkpt>
      <trkpt lat="42.3572" lon="0.11585">
        <ele>848.4</ele>
        <time>2015-09-22T10:05:38Z</time>
      </trkpt>
      <trkpt lat="42.35722" lon="0.1158">
        <ele>848.2</ele>
        <time>2015-09-22T10:05:39Z</time>
      </trkpt>
      <trkpt lat="42.35723" lon="0.11575">
        <ele>847.9</ele>
        <time>2015-09-22T10:05:40Z</time>
      </trkpt>
      <trkpt lat="42.35724" lon="0.11571">
        <ele>847.8</ele>
        <time>2015-09-22T10:05:41Z</time>
      </trkpt>
      <trkpt lat="42.35725" lon="0.11566">
        <ele>847.8</ele>
        <time>2015-09-22T10:05:42Z</time>
      </trkpt>
      <trkpt lat="42.35727" lon="0.11563">
        <ele>847.8</ele>
        <time>2015-09-22T10:05:43Z</time>
      </trkpt>
      <trkpt lat="42.35728" lon="0.11559">
        <ele>847.8</ele>
        <time>2015-09-22T10:05:44Z</time>
      </trkpt>
      <trkpt lat="42.3573" lon="0.11556">
        <ele>847.9</ele>
        <time>2015-09-22T10:05:45Z</time>
      </trkpt>
      <trkpt lat="42.35731" lon="0.11552">
        <ele>848</ele>
        <time>2015-09-22T10:05:46Z</time>
      </trkpt>
      <trkpt lat="42.35732" lon="0.11548">
        <ele>848.1</ele>
        <time>2015-09-22T10:05:47Z</time>
      </trkpt>
      <trkpt lat="42.35733" lon="0.11545">
        <ele>848.2</ele>
        <time>2015-09-22T10:05:48Z</time>
      </trkpt>
      <trkpt lat="42.35735" lon="0.11541">
        <ele>848.3</ele>
        <time>2015-09-22T10:05:49Z</time>
      </trkpt>
      <trkpt lat="42.35736" lon="0.11538">
        <ele>848.2</ele>
        <time>2015-09-22T10:05:50Z</time>
      </trkpt>
      <trkpt lat="42.35738" lon="0.11535">
        <ele>848.1</ele>
        <time>2015-09-22T10:05:51Z</time>
      </trkpt>
      <trkpt lat="42.35739" lon="0.11531">
        <ele>848</ele>
        <time>2015-09-22T10:05:52Z</time>
      </trkpt>
      <trkpt lat="42.35741" lon="0.11528">
        <ele>848</ele>
        <time>2015-09-22T10:05:53Z</time>
      </trkpt>
      <trkpt lat="42.35742" lon="0.11524">
        <ele>847.9</ele>
        <time>2015-09-22T10:05:54Z</time>
      </trkpt>
      <trkpt lat="42.35744" lon="0.11521">
        <ele>847.8</ele>
        <time>2015-09-22T10:05:55Z</time>
      </trkpt>
      <trkpt lat="42.35745" lon="0.11517">
        <ele>847.7</ele>
        <time>2015-09-22T10:05:56Z</time>
      </trkpt>
      <trkpt lat="42.35747" lon="0.11513">
        <ele>847.5</ele>
        <time>2015-09-22T10:05:57Z</time>
      </trkpt>
      <trkpt lat="42.35748" lon="0.1151">
        <ele>847.4</ele>
        <time>2015-09-22T10:05:58Z</time>
      </trkpt>
      <trkpt lat="42.35749" lon="0.11506">
        <ele>847.3</ele>
        <time>2015-09-22T10:05:59Z</time>
      </trkpt>
      <trkpt lat="42.35751" lon="0.11499">
        <ele>847</ele>
        <time>2015-09-22T10:06:01Z</time>
      </trkpt>
      <trkpt lat="42.35753" lon="0.11496">
        <ele>847</ele>
        <time>2015-09-22T10:06:02Z</time>
      </trkpt>
      <trkpt lat="42.35754" lon="0.11493">
        <ele>847</ele>
        <time>2015-09-22T10:06:03Z</time>
      </trkpt>
      <trkpt lat="42.35756" lon="0.11489">
        <ele>846.9</ele>
        <time>2015-09-22T10:06:04Z</time>
      </trkpt>
      <trkpt lat="42.35757" lon="0.11485">
        <ele>846.9</ele>
        <time>2015-09-22T10:06:05Z</time>
      </trkpt>
      <trkpt lat="42.35758" lon="0.11482">
        <ele>846.8</ele>
        <time>2015-09-22T10:06:06Z</time>
      </trkpt>
      <trkpt lat="42.3576" lon="0.11478">
        <ele>846.8</ele>
        <time>2015-09-22T10:06:07Z</time>
      </trkpt>
      <trkpt lat="42.35762" lon="0.11475">
        <ele>846.9</ele>
        <time>2015-09-22T10:06:08Z</time>
      </trkpt>
      <trkpt lat="42.35763" lon="0.11471">
        <ele>847</ele>
        <time>2015-09-22T10:06:09Z</time>
      </trkpt>
      <trkpt lat="42.35765" lon="0.11468">
        <ele>847</ele>
        <time>2015-09-22T10:06:10Z</time>
      </trkpt>
      <trkpt lat="42.35766" lon="0.11465">
        <ele>847</ele>
        <time>2015-09-22T10:06:11Z</time>
      </trkpt>
      <trkpt lat="42.35767" lon="0.11461">
        <ele>847</ele>
        <time>2015-09-22T10:06:12Z</time>
      </trkpt>
      <trkpt lat="42.35769" lon="0.11458">
        <ele>847.1</ele>
        <time>2015-09-22T10:06:13Z</time>
      </trkpt>
      <trkpt lat="42.3577" lon="0.11454">
        <ele>846.8</ele>
        <time>2015-09-22T10:06:14Z</time>
      </trkpt>
      <trkpt lat="42.35771" lon="0.1145">
        <ele>846.5</ele>
        <time>2015-09-22T10:06:15Z</time>
      </trkpt>
      <trkpt lat="42.35772" lon="0.11446">
        <ele>846.2</ele>
        <time>2015-09-22T10:06:16Z</time>
      </trkpt>
      <trkpt lat="42.35773" lon="0.11442">
        <ele>845.9</ele>
        <time>2015-09-22T10:06:17Z</time>
      </trkpt>
      <trkpt lat="42.35775" lon="0.11438">
        <ele>845.9</ele>
        <time>2015-09-22T10:06:18Z</time>
      </trkpt>
      <trkpt lat="42.35777" lon="0.11434">
        <ele>845.9</ele>
        <time>2015-09-22T10:06:19Z</time>
      </trkpt>
      <trkpt lat="42.3578" lon="0.11431">
        <ele>846.1</ele>
        <time>2015-09-22T10:06:20Z</time>
      </trkpt>
      <trkpt lat="42.35782" lon="0.11427">
        <ele>846.2</ele>
        <time>2015-09-22T10:06:21Z</time>
      </trkpt>
      <trkpt lat="42.35784" lon="0.11424">
        <ele>846.2</ele>
        <time>2015-09-22T10:06:22Z</time>
      </trkpt>
      <trkpt lat="42.35786" lon="0.1142">
        <ele>846.3</ele>
        <time>2015-09-22T10:06:23Z</time>
      </trkpt>
      <trkpt lat="42.35788" lon="0.11416">
        <ele>846.4</ele>
        <time>2015-09-22T10:06:24Z</time>
      </trkpt>
      <trkpt lat="42.3579" lon="0.11413">
        <ele>846.4</ele>
        <time>2015-09-22T10:06:25Z</time>
      </trkpt>
      <trkpt lat="42.35792" lon="0.11409">
        <ele>846.3</ele>
        <time>2015-09-22T10:06:26Z</time>
      </trkpt>
      <trkpt lat="42.35793" lon="0.11405">
        <ele>846</ele>
        <time>2015-09-22T10:06:27Z</time>
      </trkpt>
      <trkpt lat="42.35795" lon="0.11402">
        <ele>845.7</ele>
        <time>2015-09-22T10:06:28Z</time>
      </trkpt>
      <trkpt lat="42.35797" lon="0.11398">
        <ele>845.7</ele>
        <time>2015-09-22T10:06:36Z</time>
      </trkpt>
      <trkpt lat="42.35799" lon="0.11395">
        <ele>845.6</ele>
        <time>2015-09-22T10:06:37Z</time>
      </trkpt>
      <trkpt lat="42.35801" lon="0.11392">
        <ele>845.5</ele>
        <time>2015-09-22T10:06:38Z</time>
      </trkpt>
      <trkpt lat="42.35803" lon="0.11389">
        <ele>845.6</ele>
        <time>2015-09-22T10:06:39Z</time>
      </trkpt>
      <trkpt lat="42.35805" lon="0.11385">
        <ele>845.7</ele>
        <time>2015-09-22T10:06:40Z</time>
      </trkpt>
      <trkpt lat="42.35808" lon="0.11381">
        <ele>845.9</ele>
        <time>2015-09-22T10:06:41Z</time>
      </trkpt>
      <trkpt lat="42.3581" lon="0.11377">
        <ele>846.1</ele>
        <time>2015-09-22T10:06:42Z</time>
      </trkpt>
      <trkpt lat="42.35813" lon="0.11373">
        <ele>846.3</ele>
        <time>2015-09-22T10:06:43Z</time>
      </trkpt>
      <trkpt lat="42.35815" lon="0.11368">
        <ele>846.3</ele>
        <time>2015-09-22T10:06:44Z</time>
      </trkpt>
      <trkpt lat="42.35817" lon="0.11363">
        <ele>846.4</ele>
        <time>2015-09-22T10:06:45Z</time>
      </trkpt>
      <trkpt lat="42.35819" lon="0.11358">
        <ele>846.5</ele>
        <time>2015-09-22T10:06:46Z</time>
      </trkpt>
      <trkpt lat="42.35822" lon="0.11353">
        <ele>846.6</ele>
        <time>2015-09-22T10:06:47Z</time>
      </trkpt>
      <trkpt lat="42.35825" lon="0.11345">
        <ele>846.7</ele>
        <time>2015-09-22T10:06:48Z</time>
      </trkpt>
      <trkpt lat="42.35827" lon="0.11339">
        <ele>846.8</ele>
        <time>2015-09-22T10:06:49Z</time>
      </trkpt>
      <trkpt lat="42.3583" lon="0.11334">
        <ele>846.8</ele>
        <time>2015-09-22T10:06:50Z</time>
      </trkpt>
      <trkpt lat="42.35833" lon="0.11328">
        <ele>847</ele>
        <time>2015-09-22T10:06:51Z</time>
      </trkpt>
      <trkpt lat="42.35835" lon="0.11323">
        <ele>847</ele>
        <time>2015-09-22T10:06:52Z</time>
      </trkpt>
      <trkpt lat="42.35838" lon="0.11317">
        <ele>847.3</ele>
        <time>2015-09-22T10:06:53Z</time>
      </trkpt>
      <trkpt lat="42.35841" lon="0.11311">
        <ele>847.5</ele>
        <time>2015-09-22T10:06:54Z</time>
      </trkpt>
      <trkpt lat="42.35844" lon="0.11306">
        <ele>847.7</ele>
        <time>2015-09-22T10:06:55Z</time>
      </trkpt>
      <trkpt lat="42.35847" lon="0.113">
        <ele>847.9</ele>
        <time>2015-09-22T10:06:56Z</time>
      </trkpt>
      <trkpt lat="42.3585" lon="0.11294">
        <ele>848.4</ele>
        <time>2015-09-22T10:06:57Z</time>
      </trkpt>
      <trkpt lat="42.35854" lon="0.11289">
        <ele>849.2</ele>
        <time>2015-09-22T10:06:58Z</time>
      </trkpt>
      <trkpt lat="42.35858" lon="0.11284">
        <ele>850.1</ele>
        <time>2015-09-22T10:06:59Z</time>
      </trkpt>
      <trkpt lat="42.35861" lon="0.11279">
        <ele>850.6</ele>
        <time>2015-09-22T10:07:00Z</time>
      </trkpt>
      <trkpt lat="42.35865" lon="0.11274">
        <ele>851.1</ele>
        <time>2015-09-22T10:07:01Z</time>
      </trkpt>
      <trkpt lat="42.35868" lon="0.11269">
        <ele>851.6</ele>
        <time>2015-09-22T10:07:02Z</time>
      </trkpt>
      <trkpt lat="42.35871" lon="0.11264">
        <ele>851.8</ele>
        <time>2015-09-22T10:07:03Z</time>
      </trkpt>
      <trkpt lat="42.35873" lon="0.1126">
        <ele>852</ele>
        <time>2015-09-22T10:07:04Z</time>
      </trkpt>
      <trkpt lat="42.35875" lon="0.11255">
        <ele>851.9</ele>
        <time>2015-09-22T10:07:05Z</time>
      </trkpt>
      <trkpt lat="42.35876" lon="0.1125">
        <ele>851.8</ele>
        <time>2015-09-22T10:07:06Z</time>
      </trkpt>
      <trkpt lat="42.35878" lon="0.11246">
        <ele>851.7</ele>
        <time>2015-09-22T10:07:07Z</time>
      </trkpt>
      <trkpt lat="42.35879" lon="0.11241">
        <ele>851.5</ele>
        <time>2015-09-22T10:07:08Z</time>
      </trkpt>
      <trkpt lat="42.3588" lon="0.11235">
        <ele>851.2</ele>
        <time>2015-09-22T10:07:09Z</time>
      </trkpt>
      <trkpt lat="42.35881" lon="0.1123">
        <ele>850.9</ele>
        <time>2015-09-22T10:07:10Z</time>
      </trkpt>
      <trkpt lat="42.35882" lon="0.11226">
        <ele>850.9</ele>
        <time>2015-09-22T10:07:11Z</time>
      </trkpt>
      <trkpt lat="42.35884" lon="0.11221">
        <ele>850.9</ele>
        <time>2015-09-22T10:07:12Z</time>
      </trkpt>
      <trkpt lat="42.35886" lon="0.11217">
        <ele>851</ele>
        <time>2015-09-22T10:07:13Z</time>
      </trkpt>
      <trkpt lat="42.35888" lon="0.11213">
        <ele>851</ele>
        <time>2015-09-22T10:07:14Z</time>
      </trkpt>
      <trkpt lat="42.3589" lon="0.11208">
        <ele>851.1</ele>
        <time>2015-09-22T10:07:15Z</time>
      </trkpt>
      <trkpt lat="42.35892" lon="0.11205">
        <ele>852</ele>
        <time>2015-09-22T10:07:16Z</time>
      </trkpt>
      <trkpt lat="42.35894" lon="0.11201">
        <ele>852.9</ele>
        <time>2015-09-22T10:07:17Z</time>
      </trkpt>
      <trkpt lat="42.35895" lon="0.11197">
        <ele>853.6</ele>
        <time>2015-09-22T10:07:18Z</time>
      </trkpt>
      <trkpt lat="42.35895" lon="0.11193">
        <ele>854.3</ele>
        <time>2015-09-22T10:07:19Z</time>
      </trkpt>
      <trkpt lat="42.35897" lon="0.11189">
        <ele>855</ele>
        <time>2015-09-22T10:07:20Z</time>
      </trkpt>
      <trkpt lat="42.35898" lon="0.11185">
        <ele>855.7</ele>
        <time>2015-09-22T10:07:21Z</time>
      </trkpt>
      <trkpt lat="42.359" lon="0.11182">
        <ele>856.4</ele>
        <time>2015-09-22T10:07:22Z</time>
      </trkpt>
      <trkpt lat="42.35902" lon="0.11177">
        <ele>857.3</ele>
        <time>2015-09-22T10:07:24Z</time>
      </trkpt>
      <trkpt lat="42.35904" lon="0.11173">
        <ele>858.1</ele>
        <time>2015-09-22T10:07:26Z</time>
      </trkpt>
      <trkpt lat="42.35906" lon="0.11168">
        <ele>858.9</ele>
        <time>2015-09-22T10:07:28Z</time>
      </trkpt>
      <trkpt lat="42.35909" lon="0.11163">
        <ele>859.8</ele>
        <time>2015-09-22T10:07:30Z</time>
      </trkpt>
      <trkpt lat="42.35911" lon="0.11159">
        <ele>860.4</ele>
        <time>2015-09-22T10:07:31Z</time>
      </trkpt>
      <trkpt lat="42.35913" lon="0.11156">
        <ele>860.9</ele>
        <time>2015-09-22T10:07:32Z</time>
      </trkpt>
      <trkpt lat="42.35916" lon="0.1115">
        <ele>861.7</ele>
        <time>2015-09-22T10:07:33Z</time>
      </trkpt>
      <trkpt lat="42.35917" lon="0.11144">
        <ele>862.3</ele>
        <time>2015-09-22T10:07:34Z</time>
      </trkpt>
      <trkpt lat="42.35919" lon="0.11139">
        <ele>862.9</ele>
        <time>2015-09-22T10:07:35Z</time>
      </trkpt>
      <trkpt lat="42.35922" lon="0.11134">
        <ele>863.4</ele>
        <time>2015-09-22T10:07:36Z</time>
      </trkpt>
      <trkpt lat="42.35924" lon="0.1113">
        <ele>863.9</ele>
        <time>2015-09-22T10:07:37Z</time>
      </trkpt>
      <trkpt lat="42.35927" lon="0.11126">
        <ele>864.2</ele>
        <time>2015-09-22T10:07:38Z</time>
      </trkpt>
      <trkpt lat="42.35929" lon="0.11122">
        <ele>864.5</ele>
        <time>2015-09-22T10:07:39Z</time>
      </trkpt>
      <trkpt lat="42.3593" lon="0.11118">
        <ele>864.7</ele>
        <time>2015-09-22T10:07:40Z</time>
      </trkpt>
      <trkpt lat="42.35931" lon="0.11113">
        <ele>865</ele>
        <time>2015-09-22T10:07:41Z</time>
      </trkpt>
      <trkpt lat="42.35931" lon="0.11108">
        <ele>865.3</ele>
        <time>2015-09-22T10:07:42Z</time>
      </trkpt>
      <trkpt lat="42.35931" lon="0.11103">
        <ele>865.6</ele>
        <time>2015-09-22T10:07:43Z</time>
      </trkpt>
      <trkpt lat="42.35931" lon="0.11098">
        <ele>865.8</ele>
        <time>2015-09-22T10:07:44Z</time>
      </trkpt>
      <trkpt lat="42.35931" lon="0.11093">
        <ele>866.1</ele>
        <time>2015-09-22T10:07:45Z</time>
      </trkpt>
      <trkpt lat="42.35932" lon="0.11088">
        <ele>866.4</ele>
        <time>2015-09-22T10:07:46Z</time>
      </trkpt>
      <trkpt lat="42.35934" lon="0.11084">
        <ele>866.7</ele>
        <time>2015-09-22T10:07:47Z</time>
      </trkpt>
      <trkpt lat="42.35936" lon="0.1108">
        <ele>866.9</ele>
        <time>2015-09-22T10:07:48Z</time>
      </trkpt>
      <trkpt lat="42.35938" lon="0.11077">
        <ele>867.1</ele>
        <time>2015-09-22T10:07:50Z</time>
      </trkpt>
      <trkpt lat="42.35939" lon="0.11072">
        <ele>867.4</ele>
        <time>2015-09-22T10:08:03Z</time>
      </trkpt>
      <trkpt lat="42.35941" lon="0.11069">
        <ele>867.5</ele>
        <time>2015-09-22T10:08:07Z</time>
      </trkpt>
      <trkpt lat="42.35942" lon="0.11066">
        <ele>867.7</ele>
        <time>2015-09-22T10:08:11Z</time>
      </trkpt>
      <trkpt lat="42.35943" lon="0.11062">
        <ele>867.9</ele>
        <time>2015-09-22T10:08:12Z</time>
      </trkpt>
      <trkpt lat="42.35944" lon="0.11058">
        <ele>868.2</ele>
        <time>2015-09-22T10:08:13Z</time>
      </trkpt>
      <trkpt lat="42.35945" lon="0.11054">
        <ele>868.4</ele>
        <time>2015-09-22T10:08:14Z</time>
      </trkpt>
      <trkpt lat="42.35946" lon="0.11049">
        <ele>868.6</ele>
        <time>2015-09-22T10:08:15Z</time>
      </trkpt>
      <trkpt lat="42.35948" lon="0.11045">
        <ele>868.8</ele>
        <time>2015-09-22T10:08:16Z</time>
      </trkpt>
      <trkpt lat="42.3595" lon="0.11041">
        <ele>869</ele>
        <time>2015-09-22T10:08:17Z</time>
      </trkpt>
      <trkpt lat="42.35952" lon="0.11037">
        <ele>869.2</ele>
        <time>2015-09-22T10:08:18Z</time>
      </trkpt>
      <trkpt lat="42.35955" lon="0.11033">
        <ele>869.4</ele>
        <time>2015-09-22T10:08:19Z</time>
      </trkpt>
      <trkpt lat="42.35957" lon="0.11029">
        <ele>869.6</ele>
        <time>2015-09-22T10:08:20Z</time>
      </trkpt>
      <trkpt lat="42.35959" lon="0.11025">
        <ele>869.8</ele>
        <time>2015-09-22T10:08:21Z</time>
      </trkpt>
      <trkpt lat="42.35962" lon="0.11022">
        <ele>870.1</ele>
        <time>2015-09-22T10:08:22Z</time>
      </trkpt>
      <trkpt lat="42.35966" lon="0.11018">
        <ele>870.5</ele>
        <time>2015-09-22T10:08:23Z</time>
      </trkpt>
      <trkpt lat="42.3597" lon="0.11014">
        <ele>870.8</ele>
        <time>2015-09-22T10:08:24Z</time>
      </trkpt>
      <trkpt lat="42.35974" lon="0.11009">
        <ele>871.2</ele>
        <time>2015-09-22T10:08:25Z</time>
      </trkpt>
      <trkpt lat="42.35975" lon="0.11004">
        <ele>871.4</ele>
        <time>2015-09-22T10:08:26Z</time>
      </trkpt>
      <trkpt lat="42.35977" lon="0.10998">
        <ele>871.7</ele>
        <time>2015-09-22T10:08:27Z</time>
      </trkpt>
      <trkpt lat="42.35979" lon="0.10993">
        <ele>872</ele>
        <time>2015-09-22T10:08:28Z</time>
      </trkpt>
      <trkpt lat="42.35982" lon="0.10989">
        <ele>872.3</ele>
        <time>2015-09-22T10:08:29Z</time>
      </trkpt>
      <trkpt lat="42.35985" lon="0.10985">
        <ele>872.6</ele>
        <time>2015-09-22T10:08:30Z</time>
      </trkpt>
      <trkpt lat="42.35988" lon="0.1098">
        <ele>872.9</ele>
        <time>2015-09-22T10:08:31Z</time>
      </trkpt>
      <trkpt lat="42.3599" lon="0.10975">
        <ele>873.1</ele>
        <time>2015-09-22T10:08:32Z</time>
      </trkpt>
      <trkpt lat="42.35992" lon="0.10969">
        <ele>873.4</ele>
        <time>2015-09-22T10:08:33Z</time>
      </trkpt>
      <trkpt lat="42.35993" lon="0.10964">
        <ele>873.6</ele>
        <time>2015-09-22T10:08:34Z</time>
      </trkpt>
      <trkpt lat="42.35994" lon="0.10959">
        <ele>873.8</ele>
        <time>2015-09-22T10:08:35Z</time>
      </trkpt>
      <trkpt lat="42.35995" lon="0.10955">
        <ele>873.8</ele>
        <time>2015-09-22T10:08:36Z</time>
      </trkpt>
      <trkpt lat="42.35997" lon="0.1095">
        <ele>873.7</ele>
        <time>2015-09-22T10:08:37Z</time>
      </trkpt>
      <trkpt lat="42.35999" lon="0.10945">
        <ele>873.7</ele>
        <time>2015-09-22T10:08:39Z</time>
      </trkpt>
      <trkpt lat="42.36" lon="0.10941">
        <ele>873.7</ele>
        <time>2015-09-22T10:08:41Z</time>
      </trkpt>
      <trkpt lat="42.36004" lon="0.10938">
        <ele>873.8</ele>
        <time>2015-09-22T10:08:43Z</time>
      </trkpt>
      <trkpt lat="42.36008" lon="0.10936">
        <ele>874</ele>
        <time>2015-09-22T10:08:45Z</time>
      </trkpt>
      <trkpt lat="42.36012" lon="0.10931">
        <ele>874.1</ele>
        <time>2015-09-22T10:08:47Z</time>
      </trkpt>
      <trkpt lat="42.36014" lon="0.10925">
        <ele>874.2</ele>
        <time>2015-09-22T10:08:49Z</time>
      </trkpt>
      <trkpt lat="42.36016" lon="0.10921">
        <ele>874.3</ele>
        <time>2015-09-22T10:08:50Z</time>
      </trkpt>
      <trkpt lat="42.36018" lon="0.10917">
        <ele>874.5</ele>
        <time>2015-09-22T10:08:51Z</time>
      </trkpt>
      <trkpt lat="42.3602" lon="0.10914">
        <ele>874.6</ele>
        <time>2015-09-22T10:08:52Z</time>
      </trkpt>
      <trkpt lat="42.36023" lon="0.10911">
        <ele>874.8</ele>
        <time>2015-09-22T10:08:53Z</time>
      </trkpt>
      <trkpt lat="42.36027" lon="0.10907">
        <ele>875.1</ele>
        <time>2015-09-22T10:08:55Z</time>
      </trkpt>
      <trkpt lat="42.36031" lon="0.10904">
        <ele>875.5</ele>
        <time>2015-09-22T10:08:57Z</time>
      </trkpt>
      <trkpt lat="42.36034" lon="0.10901">
        <ele>875.7</ele>
        <time>2015-09-22T10:08:59Z</time>
      </trkpt>
      <trkpt lat="42.36035" lon="0.10898">
        <ele>875.9</ele>
        <time>2015-09-22T10:09:01Z</time>
      </trkpt>
      <trkpt lat="42.36036" lon="0.10894">
        <ele>876</ele>
        <time>2015-09-22T10:09:03Z</time>
      </trkpt>
      <trkpt lat="42.36035" lon="0.1089">
        <ele>876</ele>
        <time>2015-09-22T10:09:05Z</time>
      </trkpt>
      <trkpt lat="42.36034" lon="0.10887">
        <ele>876</ele>
        <time>2015-09-22T10:09:07Z</time>
      </trkpt>
      <trkpt lat="42.36034" lon="0.10882">
        <ele>876.1</ele>
        <time>2015-09-22T10:09:09Z</time>
      </trkpt>
      <trkpt lat="42.36035" lon="0.10877">
        <ele>876.2</ele>
        <time>2015-09-22T10:09:10Z</time>
      </trkpt>
      <trkpt lat="42.36035" lon="0.10873">
        <ele>876.1</ele>
        <time>2015-09-22T10:09:11Z</time>
      </trkpt>
      <trkpt lat="42.36035" lon="0.10869">
        <ele>875.8</ele>
        <time>2015-09-22T10:09:12Z</time>
      </trkpt>
      <trkpt lat="42.36036" lon="0.10865">
        <ele>875.5</ele>
        <time>2015-09-22T10:09:13Z</time>
      </trkpt>
      <trkpt lat="42.36037" lon="0.10861">
        <ele>875.3</ele>
        <time>2015-09-22T10:09:14Z</time>
      </trkpt>
      <trkpt lat="42.36038" lon="0.10858">
        <ele>875.1</ele>
        <time>2015-09-22T10:09:15Z</time>
      </trkpt>
      <trkpt lat="42.36037" lon="0.10853">
        <ele>874.6</ele>
        <time>2015-09-22T10:09:17Z</time>
      </trkpt>
      <trkpt lat="42.36035" lon="0.10848">
        <ele>874</ele>
        <time>2015-09-22T10:09:19Z</time>
      </trkpt>
      <trkpt lat="42.36037" lon="0.10842">
        <ele>873.6</ele>
        <time>2015-09-22T10:09:21Z</time>
      </trkpt>
      <trkpt lat="42.36039" lon="0.10836">
        <ele>873.5</ele>
        <time>2015-09-22T10:09:23Z</time>
      </trkpt>
      <trkpt lat="42.36041" lon="0.1083">
        <ele>873.2</ele>
        <time>2015-09-22T10:09:25Z</time>
      </trkpt>
      <trkpt lat="42.36043" lon="0.10824">
        <ele>872.8</ele>
        <time>2015-09-22T10:09:27Z</time>
      </trkpt>
      <trkpt lat="42.36046" lon="0.10819">
        <ele>872.6</ele>
        <time>2015-09-22T10:09:29Z</time>
      </trkpt>
      <trkpt lat="42.36051" lon="0.10816">
        <ele>872.8</ele>
        <time>2015-09-22T10:09:31Z</time>
      </trkpt>
      <trkpt lat="42.36054" lon="0.10814">
        <ele>872.9</ele>
        <time>2015-09-22T10:09:32Z</time>
      </trkpt>
      <trkpt lat="42.36057" lon="0.10812">
        <ele>873</ele>
        <time>2015-09-22T10:09:33Z</time>
      </trkpt>
      <trkpt lat="42.36059" lon="0.10811">
        <ele>873.1</ele>
        <time>2015-09-22T10:09:34Z</time>
      </trkpt>
      <trkpt lat="42.36062" lon="0.10809">
        <ele>873.2</ele>
        <time>2015-09-22T10:09:35Z</time>
      </trkpt>
      <trkpt lat="42.36065" lon="0.10808">
        <ele>873.4</ele>
        <time>2015-09-22T10:09:36Z</time>
      </trkpt>
      <trkpt lat="42.36068" lon="0.10807">
        <ele>873.6</ele>
        <time>2015-09-22T10:09:37Z</time>
      </trkpt>
      <trkpt lat="42.36071" lon="0.10806">
        <ele>873.8</ele>
        <time>2015-09-22T10:09:38Z</time>
      </trkpt>
      <trkpt lat="42.36074" lon="0.10806">
        <ele>874</ele>
        <time>2015-09-22T10:09:39Z</time>
      </trkpt>
      <trkpt lat="42.36077" lon="0.10805">
        <ele>874.2</ele>
        <time>2015-09-22T10:09:40Z</time>
      </trkpt>
      <trkpt lat="42.36079" lon="0.10804">
        <ele>874.4</ele>
        <time>2015-09-22T10:09:41Z</time>
      </trkpt>
      <trkpt lat="42.36082" lon="0.10803">
        <ele>874.6</ele>
        <time>2015-09-22T10:09:42Z</time>
      </trkpt>
      <trkpt lat="42.36085" lon="0.10803">
        <ele>874.9</ele>
        <time>2015-09-22T10:09:43Z</time>
      </trkpt>
      <trkpt lat="42.36088" lon="0.10803">
        <ele>875.1</ele>
        <time>2015-09-22T10:09:44Z</time>
      </trkpt>
      <trkpt lat="42.36091" lon="0.10803">
        <ele>875.4</ele>
        <time>2015-09-22T10:09:45Z</time>
      </trkpt>
      <trkpt lat="42.36094" lon="0.10804">
        <ele>875.7</ele>
        <time>2015-09-22T10:09:46Z</time>
      </trkpt>
      <trkpt lat="42.36097" lon="0.10805">
        <ele>876</ele>
        <time>2015-09-22T10:09:47Z</time>
      </trkpt>
      <trkpt lat="42.36101" lon="0.10808">
        <ele>876.5</ele>
        <time>2015-09-22T10:09:49Z</time>
      </trkpt>
      <trkpt lat="42.36105" lon="0.1081">
        <ele>877</ele>
        <time>2015-09-22T10:09:51Z</time>
      </trkpt>
      <trkpt lat="42.3611" lon="0.1081">
        <ele>877.4</ele>
        <time>2015-09-22T10:09:53Z</time>
      </trkpt>
      <trkpt lat="42.36114" lon="0.10809">
        <ele>877.7</ele>
        <time>2015-09-22T10:09:55Z</time>
      </trkpt>
      <trkpt lat="42.36118" lon="0.10809">
        <ele>878</ele>
        <time>2015-09-22T10:09:58Z</time>
      </trkpt>
      <trkpt lat="42.3612" lon="0.10811">
        <ele>878.3</ele>
        <time>2015-09-22T10:10:08Z</time>
      </trkpt>
      <trkpt lat="42.36123" lon="0.10813">
        <ele>878.6</ele>
        <time>2015-09-22T10:10:13Z</time>
      </trkpt>
      <trkpt lat="42.36126" lon="0.10814">
        <ele>878.9</ele>
        <time>2015-09-22T10:10:17Z</time>
      </trkpt>
      <trkpt lat="42.36129" lon="0.10814">
        <ele>879.3</ele>
        <time>2015-09-22T10:10:20Z</time>
      </trkpt>
      <trkpt lat="42.36132" lon="0.10814">
        <ele>879.6</ele>
        <time>2015-09-22T10:10:24Z</time>
      </trkpt>
      <trkpt lat="42.36134" lon="0.10812">
        <ele>879.8</ele>
        <time>2015-09-22T10:10:40Z</time>
      </trkpt>
      <trkpt lat="42.36137" lon="0.10809">
        <ele>880</ele>
        <time>2015-09-22T10:11:00Z</time>
      </trkpt>
      <trkpt lat="42.3614" lon="0.10806">
        <ele>880.4</ele>
        <time>2015-09-22T10:11:02Z</time>
      </trkpt>
      <trkpt lat="42.36144" lon="0.10803">
        <ele>880.8</ele>
        <time>2015-09-22T10:11:04Z</time>
      </trkpt>
      <trkpt lat="42.36147" lon="0.10799">
        <ele>881.1</ele>
        <time>2015-09-22T10:11:06Z</time>
      </trkpt>
      <trkpt lat="42.36149" lon="0.10794">
        <ele>881.3</ele>
        <time>2015-09-22T10:11:08Z</time>
      </trkpt>
      <trkpt lat="42.36152" lon="0.10788">
        <ele>881.8</ele>
        <time>2015-09-22T10:11:10Z</time>
      </trkpt>
      <trkpt lat="42.36153" lon="0.10784">
        <ele>882.2</ele>
        <time>2015-09-22T10:11:11Z</time>
      </trkpt>
      <trkpt lat="42.36156" lon="0.10779">
        <ele>882.8</ele>
        <time>2015-09-22T10:11:13Z</time>
      </trkpt>
      <trkpt lat="42.36159" lon="0.10774">
        <ele>883.6</ele>
        <time>2015-09-22T10:11:15Z</time>
      </trkpt>
      <trkpt lat="42.36161" lon="0.10771">
        <ele>884</ele>
        <time>2015-09-22T10:11:16Z</time>
      </trkpt>
      <trkpt lat="42.36163" lon="0.10768">
        <ele>884.5</ele>
        <time>2015-09-22T10:11:17Z</time>
      </trkpt>
      <trkpt lat="42.36165" lon="0.10765">
        <ele>884.8</ele>
        <time>2015-09-22T10:11:18Z</time>
      </trkpt>
      <trkpt lat="42.36166" lon="0.10759">
        <ele>885.4</ele>
        <time>2015-09-22T10:11:20Z</time>
      </trkpt>
      <trkpt lat="42.36169" lon="0.10754">
        <ele>886.1</ele>
        <time>2015-09-22T10:11:22Z</time>
      </trkpt>
      <trkpt lat="42.36171" lon="0.10748">
        <ele>886.6</ele>
        <time>2015-09-22T10:11:24Z</time>
      </trkpt>
      <trkpt lat="42.36171" lon="0.10742">
        <ele>887.1</ele>
        <time>2015-09-22T10:11:26Z</time>
      </trkpt>
      <trkpt lat="42.36172" lon="0.10737">
        <ele>887.5</ele>
        <time>2015-09-22T10:11:28Z</time>
      </trkpt>
      <trkpt lat="42.36173" lon="0.10731">
        <ele>888</ele>
        <time>2015-09-22T10:11:30Z</time>
      </trkpt>
      <trkpt lat="42.36175" lon="0.10726">
        <ele>888.5</ele>
        <time>2015-09-22T10:11:32Z</time>
      </trkpt>
      <trkpt lat="42.36177" lon="0.10721">
        <ele>889.1</ele>
        <time>2015-09-22T10:11:34Z</time>
      </trkpt>
      <trkpt lat="42.36179" lon="0.10715">
        <ele>889.7</ele>
        <time>2015-09-22T10:11:36Z</time>
      </trkpt>
      <trkpt lat="42.36179" lon="0.10709">
        <ele>890.1</ele>
        <time>2015-09-22T10:11:38Z</time>
      </trkpt>
      <trkpt lat="42.3618" lon="0.10704">
        <ele>890.5</ele>
        <time>2015-09-22T10:11:40Z</time>
      </trkpt>
      <trkpt lat="42.36183" lon="0.10706">
        <ele>890.7</ele>
        <time>2015-09-22T10:11:46Z</time>
      </trkpt>
      <trkpt lat="42.36184" lon="0.1071">
        <ele>890.6</ele>
        <time>2015-09-22T10:11:53Z</time>
      </trkpt>
      <trkpt lat="42.36183" lon="0.10714">
        <ele>890.4</ele>
        <time>2015-09-22T10:12:04Z</time>
      </trkpt>
      <trkpt lat="42.36184" lon="0.10718">
        <ele>890.2</ele>
        <time>2015-09-22T10:12:06Z</time>
      </trkpt>
      <trkpt lat="42.36185" lon="0.10722">
        <ele>890</ele>
        <time>2015-09-22T10:12:08Z</time>
      </trkpt>
      <trkpt lat="42.36186" lon="0.10727">
        <ele>889.9</ele>
        <time>2015-09-22T10:12:10Z</time>
      </trkpt>
      <trkpt lat="42.36188" lon="0.10731">
        <ele>889.9</ele>
        <time>2015-09-22T10:12:12Z</time>
      </trkpt>
      <trkpt lat="42.3619" lon="0.10734">
        <ele>890</ele>
        <time>2015-09-22T10:12:14Z</time>
      </trkpt>
      <trkpt lat="42.36192" lon="0.10738">
        <ele>890.1</ele>
        <time>2015-09-22T10:12:16Z</time>
      </trkpt>
      <trkpt lat="42.36196" lon="0.1074">
        <ele>890.5</ele>
        <time>2015-09-22T10:12:18Z</time>
      </trkpt>
      <trkpt lat="42.36201" lon="0.10739">
        <ele>891.2</ele>
        <time>2015-09-22T10:12:20Z</time>
      </trkpt>
      <trkpt lat="42.36205" lon="0.1074">
        <ele>891.7</ele>
        <time>2015-09-22T10:12:22Z</time>
      </trkpt>
      <trkpt lat="42.36211" lon="0.10741">
        <ele>892.2</ele>
        <time>2015-09-22T10:12:24Z</time>
      </trkpt>
      <trkpt lat="42.36214" lon="0.10741">
        <ele>892.5</ele>
        <time>2015-09-22T10:12:25Z</time>
      </trkpt>
      <trkpt lat="42.36219" lon="0.1074">
        <ele>893.1</ele>
        <time>2015-09-22T10:12:27Z</time>
      </trkpt>
      <trkpt lat="42.36224" lon="0.1074">
        <ele>893.6</ele>
        <time>2015-09-22T10:12:29Z</time>
      </trkpt>
      <trkpt lat="42.36229" lon="0.10741">
        <ele>894</ele>
        <time>2015-09-22T10:12:31Z</time>
      </trkpt>
      <trkpt lat="42.36234" lon="0.10743">
        <ele>894.4</ele>
        <time>2015-09-22T10:12:33Z</time>
      </trkpt>
      <trkpt lat="42.36239" lon="0.10746">
        <ele>894.7</ele>
        <time>2015-09-22T10:12:35Z</time>
      </trkpt>
      <trkpt lat="42.36241" lon="0.10747">
        <ele>894.9</ele>
        <time>2015-09-22T10:12:36Z</time>
      </trkpt>
      <trkpt lat="42.36244" lon="0.10748">
        <ele>895.1</ele>
        <time>2015-09-22T10:12:37Z</time>
      </trkpt>
      <trkpt lat="42.36247" lon="0.10748">
        <ele>895.3</ele>
        <time>2015-09-22T10:12:38Z</time>
      </trkpt>
      <trkpt lat="42.3625" lon="0.10749">
        <ele>895.6</ele>
        <time>2015-09-22T10:12:39Z</time>
      </trkpt>
      <trkpt lat="42.36253" lon="0.1075">
        <ele>895.8</ele>
        <time>2015-09-22T10:12:40Z</time>
      </trkpt>
      <trkpt lat="42.36255" lon="0.10751">
        <ele>895.9</ele>
        <time>2015-09-22T10:12:41Z</time>
      </trkpt>
      <trkpt lat="42.36259" lon="0.10756">
        <ele>896.1</ele>
        <time>2015-09-22T10:12:43Z</time>
      </trkpt>
      <trkpt lat="42.36261" lon="0.10759">
        <ele>896.1</ele>
        <time>2015-09-22T10:12:44Z</time>
      </trkpt>
      <trkpt lat="42.36263" lon="0.10762">
        <ele>896</ele>
        <time>2015-09-22T10:12:45Z</time>
      </trkpt>
      <trkpt lat="42.36265" lon="0.10765">
        <ele>896</ele>
        <time>2015-09-22T10:12:46Z</time>
      </trkpt>
      <trkpt lat="42.36266" lon="0.10768">
        <ele>896</ele>
        <time>2015-09-22T10:12:47Z</time>
      </trkpt>
      <trkpt lat="42.36267" lon="0.10773">
        <ele>895.8</ele>
        <time>2015-09-22T10:12:49Z</time>
      </trkpt>
      <trkpt lat="42.36267" lon="0.10777">
        <ele>895.6</ele>
        <time>2015-09-22T10:12:51Z</time>
      </trkpt>
      <trkpt lat="42.36269" lon="0.1078">
        <ele>895.5</ele>
        <time>2015-09-22T10:12:54Z</time>
      </trkpt>
      <trkpt lat="42.36273" lon="0.10779">
        <ele>895.9</ele>
        <time>2015-09-22T10:12:57Z</time>
      </trkpt>
      <trkpt lat="42.36276" lon="0.10778">
        <ele>896.3</ele>
        <time>2015-09-22T10:13:00Z</time>
      </trkpt>
      <trkpt lat="42.3628" lon="0.10779">
        <ele>896.7</ele>
        <time>2015-09-22T10:13:35Z</time>
      </trkpt>
      <trkpt lat="42.36286" lon="0.10779">
        <ele>897.2</ele>
        <time>2015-09-22T10:13:37Z</time>
      </trkpt>
      <trkpt lat="42.36291" lon="0.10779">
        <ele>897.7</ele>
        <time>2015-09-22T10:13:39Z</time>
      </trkpt>
      <trkpt lat="42.36296" lon="0.10778">
        <ele>898.1</ele>
        <time>2015-09-22T10:13:41Z</time>
      </trkpt>
      <trkpt lat="42.36299" lon="0.10778">
        <ele>898.3</ele>
        <time>2015-09-22T10:13:42Z</time>
      </trkpt>
      <trkpt lat="42.36302" lon="0.10779">
        <ele>898.5</ele>
        <time>2015-09-22T10:13:43Z</time>
      </trkpt>
      <trkpt lat="42.36305" lon="0.10778">
        <ele>898.7</ele>
        <time>2015-09-22T10:13:44Z</time>
      </trkpt>
      <trkpt lat="42.36308" lon="0.10778">
        <ele>898.9</ele>
        <time>2015-09-22T10:13:45Z</time>
      </trkpt>
      <trkpt lat="42.3631" lon="0.10777">
        <ele>899.2</ele>
        <time>2015-09-22T10:13:46Z</time>
      </trkpt>
      <trkpt lat="42.36316" lon="0.10776">
        <ele>899.6</ele>
        <time>2015-09-22T10:13:48Z</time>
      </trkpt>
      <trkpt lat="42.36319" lon="0.10776">
        <ele>899.8</ele>
        <time>2015-09-22T10:13:49Z</time>
      </trkpt>
      <trkpt lat="42.36322" lon="0.10777">
        <ele>899.9</ele>
        <time>2015-09-22T10:13:50Z</time>
      </trkpt>
      <trkpt lat="42.36325" lon="0.10779">
        <ele>900</ele>
        <time>2015-09-22T10:13:51Z</time>
      </trkpt>
      <trkpt lat="42.36327" lon="0.1078">
        <ele>900.2</ele>
        <time>2015-09-22T10:13:52Z</time>
      </trkpt>
      <trkpt lat="42.3633" lon="0.10782">
        <ele>900.3</ele>
        <time>2015-09-22T10:13:53Z</time>
      </trkpt>
      <trkpt lat="42.36335" lon="0.10785">
        <ele>900.4</ele>
        <time>2015-09-22T10:13:55Z</time>
      </trkpt>
      <trkpt lat="42.36339" lon="0.10787">
        <ele>900.6</ele>
        <time>2015-09-22T10:13:57Z</time>
      </trkpt>
      <trkpt lat="42.36344" lon="0.10789">
        <ele>900.9</ele>
        <time>2015-09-22T10:13:59Z</time>
      </trkpt>
      <trkpt lat="42.36349" lon="0.10792">
        <ele>901.1</ele>
        <time>2015-09-22T10:14:01Z</time>
      </trkpt>
      <trkpt lat="42.36353" lon="0.10794">
        <ele>901.3</ele>
        <time>2015-09-22T10:14:03Z</time>
      </trkpt>
      <trkpt lat="42.36358" lon="0.10798">
        <ele>901.3</ele>
        <time>2015-09-22T10:14:05Z</time>
      </trkpt>
      <trkpt lat="42.36362" lon="0.10801">
        <ele>901.4</ele>
        <time>2015-09-22T10:14:07Z</time>
      </trkpt>
      <trkpt lat="42.36367" lon="0.10804">
        <ele>901.5</ele>
        <time>2015-09-22T10:14:09Z</time>
      </trkpt>
      <trkpt lat="42.36372" lon="0.10806">
        <ele>901.7</ele>
        <time>2015-09-22T10:14:11Z</time>
      </trkpt>
      <trkpt lat="42.36377" lon="0.10807">
        <ele>902</ele>
        <time>2015-09-22T10:14:13Z</time>
      </trkpt>
      <trkpt lat="42.36383" lon="0.10808">
        <ele>902.2</ele>
        <time>2015-09-22T10:14:15Z</time>
      </trkpt>
      <trkpt lat="42.36385" lon="0.10808">
        <ele>902.4</ele>
        <time>2015-09-22T10:14:16Z</time>
      </trkpt>
      <trkpt lat="42.36388" lon="0.10807">
        <ele>902.5</ele>
        <time>2015-09-22T10:14:17Z</time>
      </trkpt>
      <trkpt lat="42.36394" lon="0.10807">
        <ele>902.8</ele>
        <time>2015-09-22T10:14:19Z</time>
      </trkpt>
      <trkpt lat="42.36396" lon="0.10806">
        <ele>903</ele>
        <time>2015-09-22T10:14:20Z</time>
      </trkpt>
      <trkpt lat="42.36399" lon="0.10805">
        <ele>903.2</ele>
        <time>2015-09-22T10:14:21Z</time>
      </trkpt>
      <trkpt lat="42.36404" lon="0.10803">
        <ele>903.6</ele>
        <time>2015-09-22T10:14:23Z</time>
      </trkpt>
      <trkpt lat="42.36408" lon="0.10801">
        <ele>903.9</ele>
        <time>2015-09-22T10:14:25Z</time>
      </trkpt>
      <trkpt lat="42.36411" lon="0.10801">
        <ele>904.1</ele>
        <time>2015-09-22T10:14:28Z</time>
      </trkpt>
      <trkpt lat="42.36414" lon="0.10799">
        <ele>904.4</ele>
        <time>2015-09-22T10:17:42Z</time>
      </trkpt>
      <trkpt lat="42.36418" lon="0.10796">
        <ele>904.8</ele>
        <time>2015-09-22T10:17:44Z</time>
      </trkpt>
      <trkpt lat="42.36422" lon="0.10792">
        <ele>905.2</ele>
        <time>2015-09-22T10:17:46Z</time>
      </trkpt>
      <trkpt lat="42.36424" lon="0.1079">
        <ele>905.4</ele>
        <time>2015-09-22T10:17:47Z</time>
      </trkpt>
      <trkpt lat="42.36427" lon="0.10789">
        <ele>905.5</ele>
        <time>2015-09-22T10:17:48Z</time>
      </trkpt>
      <trkpt lat="42.3643" lon="0.10788">
        <ele>905.7</ele>
        <time>2015-09-22T10:17:49Z</time>
      </trkpt>
      <trkpt lat="42.36435" lon="0.10786">
        <ele>905.9</ele>
        <time>2015-09-22T10:17:51Z</time>
      </trkpt>
      <trkpt lat="42.36439" lon="0.10785">
        <ele>906.1</ele>
        <time>2015-09-22T10:17:53Z</time>
      </trkpt>
      <trkpt lat="42.36444" lon="0.10782">
        <ele>906.4</ele>
        <time>2015-09-22T10:17:55Z</time>
      </trkpt>
      <trkpt lat="42.36448" lon="0.10779">
        <ele>906.6</ele>
        <time>2015-09-22T10:17:57Z</time>
      </trkpt>
      <trkpt lat="42.36452" lon="0.10776">
        <ele>906.7</ele>
        <time>2015-09-22T10:17:59Z</time>
      </trkpt>
      <trkpt lat="42.36456" lon="0.10773">
        <ele>906.9</ele>
        <time>2015-09-22T10:18:01Z</time>
      </trkpt>
      <trkpt lat="42.36461" lon="0.1077">
        <ele>906.8</ele>
        <time>2015-09-22T10:18:03Z</time>
      </trkpt>
      <trkpt lat="42.36466" lon="0.10768">
        <ele>906.6</ele>
        <time>2015-09-22T10:18:05Z</time>
      </trkpt>
      <trkpt lat="42.36469" lon="0.10767">
        <ele>906.3</ele>
        <time>2015-09-22T10:18:07Z</time>
      </trkpt>
      <trkpt lat="42.36473" lon="0.10768">
        <ele>906.1</ele>
        <time>2015-09-22T10:18:09Z</time>
      </trkpt>
      <trkpt lat="42.36475" lon="0.10773">
        <ele>906</ele>
        <time>2015-09-22T10:18:11Z</time>
      </trkpt>
      <trkpt lat="42.36479" lon="0.10776">
        <ele>905.8</ele>
        <time>2015-09-22T10:18:13Z</time>
      </trkpt>
      <trkpt lat="42.36482" lon="0.10773">
        <ele>905.6</ele>
        <time>2015-09-22T10:18:15Z</time>
      </trkpt>
      <trkpt lat="42.36485" lon="0.10769">
        <ele>905.4</ele>
        <time>2015-09-22T10:18:17Z</time>
      </trkpt>
      <trkpt lat="42.36489" lon="0.10764">
        <ele>905.2</ele>
        <time>2015-09-22T10:18:19Z</time>
      </trkpt>
      <trkpt lat="42.36491" lon="0.1076">
        <ele>905.1</ele>
        <time>2015-09-22T10:18:20Z</time>
      </trkpt>
      <trkpt lat="42.36492" lon="0.10757">
        <ele>905</ele>
        <time>2015-09-22T10:18:21Z</time>
      </trkpt>
      <trkpt lat="42.36495" lon="0.10751">
        <ele>904.8</ele>
        <time>2015-09-22T10:18:23Z</time>
      </trkpt>
      <trkpt lat="42.36496" lon="0.10746">
        <ele>904.7</ele>
        <time>2015-09-22T10:18:25Z</time>
      </trkpt>
      <trkpt lat="42.36497" lon="0.10739">
        <ele>904.7</ele>
        <time>2015-09-22T10:18:27Z</time>
      </trkpt>
      <trkpt lat="42.36497" lon="0.10732">
        <ele>904.7</ele>
        <time>2015-09-22T10:18:29Z</time>
      </trkpt>
      <trkpt lat="42.36497" lon="0.10725">
        <ele>904.7</ele>
        <time>2015-09-22T10:18:31Z</time>
      </trkpt>
      <trkpt lat="42.36498" lon="0.10718">
        <ele>904.6</ele>
        <time>2015-09-22T10:18:33Z</time>
      </trkpt>
      <trkpt lat="42.36499" lon="0.10713">
        <ele>904.6</ele>
        <time>2015-09-22T10:18:34Z</time>
      </trkpt>
      <trkpt lat="42.36499" lon="0.10709">
        <ele>904.6</ele>
        <time>2015-09-22T10:18:35Z</time>
      </trkpt>
      <trkpt lat="42.36499" lon="0.10704">
        <ele>904.6</ele>
        <time>2015-09-22T10:18:36Z</time>
      </trkpt>
      <trkpt lat="42.36498" lon="0.107">
        <ele>904.6</ele>
        <time>2015-09-22T10:18:37Z</time>
      </trkpt>
      <trkpt lat="42.36498" lon="0.10696">
        <ele>904.6</ele>
        <time>2015-09-22T10:18:38Z</time>
      </trkpt>
      <trkpt lat="42.36498" lon="0.10693">
        <ele>904.5</ele>
        <time>2015-09-22T10:18:39Z</time>
      </trkpt>
      <trkpt lat="42.36498" lon="0.10685">
        <ele>904.5</ele>
        <time>2015-09-22T10:18:41Z</time>
      </trkpt>
      <trkpt lat="42.36498" lon="0.10681">
        <ele>904.5</ele>
        <time>2015-09-22T10:18:42Z</time>
      </trkpt>
      <trkpt lat="42.36499" lon="0.10677">
        <ele>904.4</ele>
        <time>2015-09-22T10:18:43Z</time>
      </trkpt>
      <trkpt lat="42.365" lon="0.10674">
        <ele>904.3</ele>
        <time>2015-09-22T10:18:44Z</time>
      </trkpt>
      <trkpt lat="42.36502" lon="0.10671">
        <ele>904.2</ele>
        <time>2015-09-22T10:18:45Z</time>
      </trkpt>
      <trkpt lat="42.36504" lon="0.10668">
        <ele>904</ele>
        <time>2015-09-22T10:18:46Z</time>
      </trkpt>
      <trkpt lat="42.36507" lon="0.10665">
        <ele>903.9</ele>
        <time>2015-09-22T10:18:47Z</time>
      </trkpt>
      <trkpt lat="42.36509" lon="0.10663">
        <ele>903.7</ele>
        <time>2015-09-22T10:18:48Z</time>
      </trkpt>
      <trkpt lat="42.36512" lon="0.10661">
        <ele>903.6</ele>
        <time>2015-09-22T10:18:49Z</time>
      </trkpt>
      <trkpt lat="42.36514" lon="0.10659">
        <ele>903.4</ele>
        <time>2015-09-22T10:18:50Z</time>
      </trkpt>
      <trkpt lat="42.36517" lon="0.10657">
        <ele>903.3</ele>
        <time>2015-09-22T10:18:51Z</time>
      </trkpt>
      <trkpt lat="42.3652" lon="0.10655">
        <ele>903.2</ele>
        <time>2015-09-22T10:18:52Z</time>
      </trkpt>
      <trkpt lat="42.36522" lon="0.10652">
        <ele>903</ele>
        <time>2015-09-22T10:18:53Z</time>
      </trkpt>
      <trkpt lat="42.36526" lon="0.10649">
        <ele>902.8</ele>
        <time>2015-09-22T10:18:54Z</time>
      </trkpt>
      <trkpt lat="42.3653" lon="0.10645">
        <ele>902.6</ele>
        <time>2015-09-22T10:18:55Z</time>
      </trkpt>
      <trkpt lat="42.36534" lon="0.10641">
        <ele>902.4</ele>
        <time>2015-09-22T10:18:56Z</time>
      </trkpt>
      <trkpt lat="42.36539" lon="0.10637">
        <ele>902.1</ele>
        <time>2015-09-22T10:18:57Z</time>
      </trkpt>
      <trkpt lat="42.36543" lon="0.10634">
        <ele>901.9</ele>
        <time>2015-09-22T10:18:58Z</time>
      </trkpt>
      <trkpt lat="42.36548" lon="0.1063">
        <ele>901.5</ele>
        <time>2015-09-22T10:18:59Z</time>
      </trkpt>
      <trkpt lat="42.36552" lon="0.10626">
        <ele>901.1</ele>
        <time>2015-09-22T10:19:00Z</time>
      </trkpt>
      <trkpt lat="42.36556" lon="0.10622">
        <ele>900.7</ele>
        <time>2015-09-22T10:19:01Z</time>
      </trkpt>
      <trkpt lat="42.36559" lon="0.10618">
        <ele>900.3</ele>
        <time>2015-09-22T10:19:02Z</time>
      </trkpt>
      <trkpt lat="42.36563" lon="0.10614">
        <ele>899.8</ele>
        <time>2015-09-22T10:19:03Z</time>
      </trkpt>
      <trkpt lat="42.36567" lon="0.10609">
        <ele>899.3</ele>
        <time>2015-09-22T10:19:04Z</time>
      </trkpt>
      <trkpt lat="42.36571" lon="0.10603">
        <ele>898.7</ele>
        <time>2015-09-22T10:19:05Z</time>
      </trkpt>
      <trkpt lat="42.36575" lon="0.10599">
        <ele>898.3</ele>
        <time>2015-09-22T10:19:06Z</time>
      </trkpt>
      <trkpt lat="42.36578" lon="0.10592">
        <ele>897.8</ele>
        <time>2015-09-22T10:19:07Z</time>
      </trkpt>
      <trkpt lat="42.3658" lon="0.10586">
        <ele>897.4</ele>
        <time>2015-09-22T10:19:08Z</time>
      </trkpt>
      <trkpt lat="42.36583" lon="0.1058">
        <ele>896.9</ele>
        <time>2015-09-22T10:19:09Z</time>
      </trkpt>
      <trkpt lat="42.36585" lon="0.10575">
        <ele>896.6</ele>
        <time>2015-09-22T10:19:10Z</time>
      </trkpt>
      <trkpt lat="42.36588" lon="0.1057">
        <ele>896.1</ele>
        <time>2015-09-22T10:19:11Z</time>
      </trkpt>
      <trkpt lat="42.36591" lon="0.10565">
        <ele>895.7</ele>
        <time>2015-09-22T10:19:12Z</time>
      </trkpt>
      <trkpt lat="42.36593" lon="0.10559">
        <ele>895.3</ele>
        <time>2015-09-22T10:19:13Z</time>
      </trkpt>
      <trkpt lat="42.36596" lon="0.10552">
        <ele>894.8</ele>
        <time>2015-09-22T10:19:14Z</time>
      </trkpt>
      <trkpt lat="42.366" lon="0.10544">
        <ele>894.2</ele>
        <time>2015-09-22T10:19:15Z</time>
      </trkpt>
      <trkpt lat="42.36602" lon="0.10537">
        <ele>893.7</ele>
        <time>2015-09-22T10:19:16Z</time>
      </trkpt>
      <trkpt lat="42.36604" lon="0.10533">
        <ele>893.4</ele>
        <time>2015-09-22T10:19:17Z</time>
      </trkpt>
      <trkpt lat="42.36605" lon="0.10529">
        <ele>893.1</ele>
        <time>2015-09-22T10:19:19Z</time>
      </trkpt>
      <trkpt lat="42.36609" lon="0.10527">
        <ele>892.7</ele>
        <time>2015-09-22T10:19:22Z</time>
      </trkpt>
      <trkpt lat="42.36613" lon="0.10531">
        <ele>892.5</ele>
        <time>2015-09-22T10:19:24Z</time>
      </trkpt>
      <trkpt lat="42.36614" lon="0.10535">
        <ele>892.6</ele>
        <time>2015-09-22T10:19:25Z</time>
      </trkpt>
      <trkpt lat="42.36616" lon="0.1054">
        <ele>892.7</ele>
        <time>2015-09-22T10:19:26Z</time>
      </trkpt>
      <trkpt lat="42.36618" lon="0.10543">
        <ele>892.6</ele>
        <time>2015-09-22T10:19:27Z</time>
      </trkpt>
      <trkpt lat="42.36622" lon="0.10546">
        <ele>892.4</ele>
        <time>2015-09-22T10:19:29Z</time>
      </trkpt>
      <trkpt lat="42.3662" lon="0.10543">
        <ele>892.4</ele>
        <time>2015-09-22T10:19:40Z</time>
      </trkpt>
      <trkpt lat="42.36623" lon="0.10545">
        <ele>892.3</ele>
        <time>2015-09-22T10:19:55Z</time>
      </trkpt>
      <trkpt lat="42.36627" lon="0.10545">
        <ele>892.1</ele>
        <time>2015-09-22T10:19:57Z</time>
      </trkpt>
      <trkpt lat="42.36631" lon="0.10544">
        <ele>892.1</ele>
        <time>2015-09-22T10:19:59Z</time>
      </trkpt>
      <trkpt lat="42.36635" lon="0.10546">
        <ele>892.2</ele>
        <time>2015-09-22T10:20:02Z</time>
      </trkpt>
      <trkpt lat="42.36638" lon="0.10548">
        <ele>892.3</ele>
        <time>2015-09-22T10:20:04Z</time>
      </trkpt>
      <trkpt lat="42.3664" lon="0.10546">
        <ele>892.3</ele>
        <time>2015-09-22T10:20:06Z</time>
      </trkpt>
      <trkpt lat="42.36641" lon="0.10542">
        <ele>892.2</ele>
        <time>2015-09-22T10:20:08Z</time>
      </trkpt>
      <trkpt lat="42.36643" lon="0.10538">
        <ele>892</ele>
        <time>2015-09-22T10:20:10Z</time>
      </trkpt>
      <trkpt lat="42.36645" lon="0.10535">
        <ele>891.9</ele>
        <time>2015-09-22T10:20:11Z</time>
      </trkpt>
      <trkpt lat="42.36647" lon="0.10533">
        <ele>891.8</ele>
        <time>2015-09-22T10:20:12Z</time>
      </trkpt>
      <trkpt lat="42.3665" lon="0.10531">
        <ele>891.7</ele>
        <time>2015-09-22T10:20:13Z</time>
      </trkpt>
      <trkpt lat="42.36653" lon="0.1053">
        <ele>891.7</ele>
        <time>2015-09-22T10:20:14Z</time>
      </trkpt>
      <trkpt lat="42.36657" lon="0.10528">
        <ele>891.6</ele>
        <time>2015-09-22T10:20:15Z</time>
      </trkpt>
      <trkpt lat="42.36661" lon="0.10525">
        <ele>891.5</ele>
        <time>2015-09-22T10:20:16Z</time>
      </trkpt>
      <trkpt lat="42.36664" lon="0.10523">
        <ele>891.3</ele>
        <time>2015-09-22T10:20:17Z</time>
      </trkpt>
      <trkpt lat="42.36668" lon="0.1052">
        <ele>891.2</ele>
        <time>2015-09-22T10:20:18Z</time>
      </trkpt>
      <trkpt lat="42.36671" lon="0.10519">
        <ele>891.2</ele>
        <time>2015-09-22T10:20:19Z</time>
      </trkpt>
      <trkpt lat="42.36674" lon="0.10519">
        <ele>891.2</ele>
        <time>2015-09-22T10:20:20Z</time>
      </trkpt>
      <trkpt lat="42.36677" lon="0.10519">
        <ele>891.2</ele>
        <time>2015-09-22T10:20:21Z</time>
      </trkpt>
      <trkpt lat="42.3668" lon="0.1052">
        <ele>891.3</ele>
        <time>2015-09-22T10:20:22Z</time>
      </trkpt>
      <trkpt lat="42.36683" lon="0.10521">
        <ele>891.3</ele>
        <time>2015-09-22T10:20:23Z</time>
      </trkpt>
      <trkpt lat="42.36686" lon="0.10521">
        <ele>891.4</ele>
        <time>2015-09-22T10:20:24Z</time>
      </trkpt>
      <trkpt lat="42.3669" lon="0.1052">
        <ele>891.3</ele>
        <time>2015-09-22T10:20:25Z</time>
      </trkpt>
      <trkpt lat="42.36693" lon="0.10519">
        <ele>891.3</ele>
        <time>2015-09-22T10:20:26Z</time>
      </trkpt>
      <trkpt lat="42.36696" lon="0.10518">
        <ele>891.2</ele>
        <time>2015-09-22T10:20:27Z</time>
      </trkpt>
      <trkpt lat="42.36698" lon="0.10516">
        <ele>891.1</ele>
        <time>2015-09-22T10:20:28Z</time>
      </trkpt>
      <trkpt lat="42.36701" lon="0.10514">
        <ele>891</ele>
        <time>2015-09-22T10:20:29Z</time>
      </trkpt>
      <trkpt lat="42.36703" lon="0.10511">
        <ele>890.8</ele>
        <time>2015-09-22T10:20:30Z</time>
      </trkpt>
      <trkpt lat="42.36705" lon="0.10507">
        <ele>890.5</ele>
        <time>2015-09-22T10:20:31Z</time>
      </trkpt>
      <trkpt lat="42.36707" lon="0.10503">
        <ele>890.2</ele>
        <time>2015-09-22T10:20:32Z</time>
      </trkpt>
      <trkpt lat="42.36709" lon="0.10498">
        <ele>889.8</ele>
        <time>2015-09-22T10:20:33Z</time>
      </trkpt>
      <trkpt lat="42.36711" lon="0.10494">
        <ele>889.3</ele>
        <time>2015-09-22T10:20:34Z</time>
      </trkpt>
      <trkpt lat="42.36715" lon="0.10489">
        <ele>888.6</ele>
        <time>2015-09-22T10:20:35Z</time>
      </trkpt>
      <trkpt lat="42.36718" lon="0.10486">
        <ele>888.1</ele>
        <time>2015-09-22T10:20:36Z</time>
      </trkpt>
      <trkpt lat="42.36722" lon="0.10483">
        <ele>887.6</ele>
        <time>2015-09-22T10:20:37Z</time>
      </trkpt>
      <trkpt lat="42.36726" lon="0.10481">
        <ele>887.1</ele>
        <time>2015-09-22T10:20:38Z</time>
      </trkpt>
      <trkpt lat="42.3673" lon="0.10478">
        <ele>886.7</ele>
        <time>2015-09-22T10:20:39Z</time>
      </trkpt>
      <trkpt lat="42.36733" lon="0.10476">
        <ele>886.3</ele>
        <time>2015-09-22T10:20:40Z</time>
      </trkpt>
      <trkpt lat="42.36735" lon="0.10473">
        <ele>885.9</ele>
        <time>2015-09-22T10:20:41Z</time>
      </trkpt>
      <trkpt lat="42.36737" lon="0.1047">
        <ele>885.6</ele>
        <time>2015-09-22T10:20:42Z</time>
      </trkpt>
      <trkpt lat="42.36739" lon="0.10466">
        <ele>885.2</ele>
        <time>2015-09-22T10:20:43Z</time>
      </trkpt>
      <trkpt lat="42.3674" lon="0.10462">
        <ele>884.9</ele>
        <time>2015-09-22T10:20:44Z</time>
      </trkpt>
      <trkpt lat="42.36741" lon="0.10457">
        <ele>884.6</ele>
        <time>2015-09-22T10:20:45Z</time>
      </trkpt>
      <trkpt lat="42.36741" lon="0.10452">
        <ele>884.3</ele>
        <time>2015-09-22T10:20:46Z</time>
      </trkpt>
      <trkpt lat="42.36741" lon="0.10447">
        <ele>884</ele>
        <time>2015-09-22T10:20:47Z</time>
      </trkpt>
      <trkpt lat="42.3674" lon="0.10442">
        <ele>883.7</ele>
        <time>2015-09-22T10:20:48Z</time>
      </trkpt>
      <trkpt lat="42.36739" lon="0.10436">
        <ele>883.5</ele>
        <time>2015-09-22T10:20:49Z</time>
      </trkpt>
      <trkpt lat="42.36738" lon="0.10431">
        <ele>883.2</ele>
        <time>2015-09-22T10:20:50Z</time>
      </trkpt>
      <trkpt lat="42.36738" lon="0.10426">
        <ele>882.9</ele>
        <time>2015-09-22T10:20:51Z</time>
      </trkpt>
      <trkpt lat="42.36738" lon="0.10421">
        <ele>882.7</ele>
        <time>2015-09-22T10:20:52Z</time>
      </trkpt>
      <trkpt lat="42.36736" lon="0.10416">
        <ele>882.4</ele>
        <time>2015-09-22T10:20:53Z</time>
      </trkpt>
      <trkpt lat="42.36734" lon="0.10412">
        <ele>882.3</ele>
        <time>2015-09-22T10:20:54Z</time>
      </trkpt>
      <trkpt lat="42.36731" lon="0.10408">
        <ele>882.2</ele>
        <time>2015-09-22T10:20:55Z</time>
      </trkpt>
      <trkpt lat="42.36728" lon="0.10404">
        <ele>882.1</ele>
        <time>2015-09-22T10:20:56Z</time>
      </trkpt>
      <trkpt lat="42.36725" lon="0.104">
        <ele>882</ele>
        <time>2015-09-22T10:20:57Z</time>
      </trkpt>
      <trkpt lat="42.36724" lon="0.10396">
        <ele>881.8</ele>
        <time>2015-09-22T10:20:58Z</time>
      </trkpt>
      <trkpt lat="42.36723" lon="0.10391">
        <ele>881.6</ele>
        <time>2015-09-22T10:20:59Z</time>
      </trkpt>
      <trkpt lat="42.36725" lon="0.10385">
        <ele>881.1</ele>
        <time>2015-09-22T10:21:01Z</time>
      </trkpt>
      <trkpt lat="42.36728" lon="0.1038">
        <ele>880.6</ele>
        <time>2015-09-22T10:21:03Z</time>
      </trkpt>
      <trkpt lat="42.36733" lon="0.10374">
        <ele>880.2</ele>
        <time>2015-09-22T10:21:05Z</time>
      </trkpt>
      <trkpt lat="42.36735" lon="0.10371">
        <ele>880.2</ele>
        <time>2015-09-22T10:21:06Z</time>
      </trkpt>
      <trkpt lat="42.36739" lon="0.10372">
        <ele>880.1</ele>
        <time>2015-09-22T10:21:07Z</time>
      </trkpt>
      <trkpt lat="42.36742" lon="0.10372">
        <ele>879.9</ele>
        <time>2015-09-22T10:21:08Z</time>
      </trkpt>
      <trkpt lat="42.36745" lon="0.10373">
        <ele>879.8</ele>
        <time>2015-09-22T10:21:09Z</time>
      </trkpt>
      <trkpt lat="42.36748" lon="0.10373">
        <ele>879.7</ele>
        <time>2015-09-22T10:21:10Z</time>
      </trkpt>
      <trkpt lat="42.36751" lon="0.10372">
        <ele>879.6</ele>
        <time>2015-09-22T10:21:11Z</time>
      </trkpt>
      <trkpt lat="42.36753" lon="0.10369">
        <ele>879.7</ele>
        <time>2015-09-22T10:21:12Z</time>
      </trkpt>
      <trkpt lat="42.36755" lon="0.10365">
        <ele>879.9</ele>
        <time>2015-09-22T10:21:13Z</time>
      </trkpt>
      <trkpt lat="42.36756" lon="0.10362">
        <ele>880</ele>
        <time>2015-09-22T10:21:14Z</time>
      </trkpt>
      <trkpt lat="42.36758" lon="0.10357">
        <ele>880.2</ele>
        <time>2015-09-22T10:21:15Z</time>
      </trkpt>
      <trkpt lat="42.3676" lon="0.10351">
        <ele>880.5</ele>
        <time>2015-09-22T10:21:16Z</time>
      </trkpt>
      <trkpt lat="42.36761" lon="0.10345">
        <ele>880.8</ele>
        <time>2015-09-22T10:21:17Z</time>
      </trkpt>
      <trkpt lat="42.36761" lon="0.10338">
        <ele>881.2</ele>
        <time>2015-09-22T10:21:18Z</time>
      </trkpt>
      <trkpt lat="42.36763" lon="0.10334">
        <ele>881.4</ele>
        <time>2015-09-22T10:21:19Z</time>
      </trkpt>
      <trkpt lat="42.36765" lon="0.10331">
        <ele>881.4</ele>
        <time>2015-09-22T10:21:21Z</time>
      </trkpt>
      <trkpt lat="42.36768" lon="0.10329">
        <ele>881.4</ele>
        <time>2015-09-22T10:21:23Z</time>
      </trkpt>
      <trkpt lat="42.36773" lon="0.10329">
        <ele>881.3</ele>
        <time>2015-09-22T10:21:25Z</time>
      </trkpt>
      <trkpt lat="42.36775" lon="0.10324">
        <ele>881.5</ele>
        <time>2015-09-22T10:21:27Z</time>
      </trkpt>
      <trkpt lat="42.36775" lon="0.1032">
        <ele>881.8</ele>
        <time>2015-09-22T10:21:29Z</time>
      </trkpt>
      <trkpt lat="42.36777" lon="0.10317">
        <ele>881.9</ele>
        <time>2015-09-22T10:21:31Z</time>
      </trkpt>
      <trkpt lat="42.3678" lon="0.10314">
        <ele>881.9</ele>
        <time>2015-09-22T10:21:33Z</time>
      </trkpt>
      <trkpt lat="42.36783" lon="0.10313">
        <ele>882</ele>
        <time>2015-09-22T10:21:34Z</time>
      </trkpt>
      <trkpt lat="42.36787" lon="0.1031">
        <ele>882.1</ele>
        <time>2015-09-22T10:21:36Z</time>
      </trkpt>
      <trkpt lat="42.36789" lon="0.10305">
        <ele>882.2</ele>
        <time>2015-09-22T10:21:38Z</time>
      </trkpt>
      <trkpt lat="42.36791" lon="0.103">
        <ele>882.5</ele>
        <time>2015-09-22T10:21:40Z</time>
      </trkpt>
      <trkpt lat="42.3679" lon="0.10295">
        <ele>882.9</ele>
        <time>2015-09-22T10:21:42Z</time>
      </trkpt>
      <trkpt lat="42.36789" lon="0.10291">
        <ele>883.1</ele>
        <time>2015-09-22T10:21:44Z</time>
      </trkpt>
      <trkpt lat="42.3679" lon="0.10286">
        <ele>883</ele>
        <time>2015-09-22T10:21:47Z</time>
      </trkpt>
      <trkpt lat="42.36792" lon="0.10281">
        <ele>883</ele>
        <time>2015-09-22T10:21:49Z</time>
      </trkpt>
      <trkpt lat="42.36796" lon="0.10277">
        <ele>882.9</ele>
        <time>2015-09-22T10:21:51Z</time>
      </trkpt>
      <trkpt lat="42.36798" lon="0.10275">
        <ele>882.8</ele>
        <time>2015-09-22T10:21:52Z</time>
      </trkpt>
      <trkpt lat="42.36802" lon="0.10272">
        <ele>882.6</ele>
        <time>2015-09-22T10:21:53Z</time>
      </trkpt>
      <trkpt lat="42.36805" lon="0.1027">
        <ele>882.5</ele>
        <time>2015-09-22T10:21:54Z</time>
      </trkpt>
      <trkpt lat="42.36809" lon="0.10268">
        <ele>882.4</ele>
        <time>2015-09-22T10:21:55Z</time>
      </trkpt>
      <trkpt lat="42.36812" lon="0.10268">
        <ele>882.3</ele>
        <time>2015-09-22T10:21:56Z</time>
      </trkpt>
      <trkpt lat="42.36816" lon="0.10269">
        <ele>882.1</ele>
        <time>2015-09-22T10:21:57Z</time>
      </trkpt>
      <trkpt lat="42.36819" lon="0.10272">
        <ele>882</ele>
        <time>2015-09-22T10:21:59Z</time>
      </trkpt>
      <trkpt lat="42.36823" lon="0.10276">
        <ele>881.9</ele>
        <time>2015-09-22T10:22:01Z</time>
      </trkpt>
      <trkpt lat="42.36827" lon="0.10278">
        <ele>881.7</ele>
        <time>2015-09-22T10:22:03Z</time>
      </trkpt>
      <trkpt lat="42.36831" lon="0.10281">
        <ele>881.6</ele>
        <time>2015-09-22T10:22:05Z</time>
      </trkpt>
      <trkpt lat="42.36834" lon="0.10283">
        <ele>881.5</ele>
        <time>2015-09-22T10:22:07Z</time>
      </trkpt>
      <trkpt lat="42.36838" lon="0.10285">
        <ele>881.3</ele>
        <time>2015-09-22T10:22:09Z</time>
      </trkpt>
      <trkpt lat="42.36843" lon="0.10286">
        <ele>881.2</ele>
        <time>2015-09-22T10:22:11Z</time>
      </trkpt>
      <trkpt lat="42.36848" lon="0.10286">
        <ele>881</ele>
        <time>2015-09-22T10:22:13Z</time>
      </trkpt>
      <trkpt lat="42.36853" lon="0.10285">
        <ele>880.8</ele>
        <time>2015-09-22T10:22:15Z</time>
      </trkpt>
      <trkpt lat="42.36858" lon="0.10281">
        <ele>880.6</ele>
        <time>2015-09-22T10:22:17Z</time>
      </trkpt>
      <trkpt lat="42.3686" lon="0.10278">
        <ele>880.5</ele>
        <time>2015-09-22T10:22:18Z</time>
      </trkpt>
      <trkpt lat="42.36862" lon="0.10274">
        <ele>880.5</ele>
        <time>2015-09-22T10:22:19Z</time>
      </trkpt>
      <trkpt lat="42.36864" lon="0.10269">
        <ele>880.4</ele>
        <time>2015-09-22T10:22:20Z</time>
      </trkpt>
      <trkpt lat="42.36865" lon="0.10264">
        <ele>880.4</ele>
        <time>2015-09-22T10:22:21Z</time>
      </trkpt>
      <trkpt lat="42.36867" lon="0.10259">
        <ele>880.3</ele>
        <time>2015-09-22T10:22:22Z</time>
      </trkpt>
      <trkpt lat="42.36869" lon="0.10253">
        <ele>880.2</ele>
        <time>2015-09-22T10:22:23Z</time>
      </trkpt>
      <trkpt lat="42.3687" lon="0.10247">
        <ele>880.2</ele>
        <time>2015-09-22T10:22:24Z</time>
      </trkpt>
      <trkpt lat="42.36872" lon="0.1024">
        <ele>880.1</ele>
        <time>2015-09-22T10:22:25Z</time>
      </trkpt>
      <trkpt lat="42.36873" lon="0.10234">
        <ele>880.1</ele>
        <time>2015-09-22T10:22:26Z</time>
      </trkpt>
      <trkpt lat="42.36876" lon="0.1023">
        <ele>879.9</ele>
        <time>2015-09-22T10:22:27Z</time>
      </trkpt>
      <trkpt lat="42.36879" lon="0.10227">
        <ele>879.8</ele>
        <time>2015-09-22T10:22:28Z</time>
      </trkpt>
      <trkpt lat="42.36884" lon="0.10228">
        <ele>879.5</ele>
        <time>2015-09-22T10:22:30Z</time>
      </trkpt>
      <trkpt lat="42.36889" lon="0.10228">
        <ele>879.1</ele>
        <time>2015-09-22T10:22:32Z</time>
      </trkpt>
      <trkpt lat="42.36892" lon="0.10227">
        <ele>878.9</ele>
        <time>2015-09-22T10:22:33Z</time>
      </trkpt>
      <trkpt lat="42.36897" lon="0.10225">
        <ele>878.7</ele>
        <time>2015-09-22T10:22:35Z</time>
      </trkpt>
      <trkpt lat="42.36902" lon="0.10224">
        <ele>878.4</ele>
        <time>2015-09-22T10:22:37Z</time>
      </trkpt>
      <trkpt lat="42.36905" lon="0.10224">
        <ele>878.3</ele>
        <time>2015-09-22T10:22:39Z</time>
      </trkpt>
      <trkpt lat="42.36907" lon="0.10224">
        <ele>878.1</ele>
        <time>2015-09-22T10:22:47Z</time>
      </trkpt>
      <trkpt lat="42.3691" lon="0.10224">
        <ele>877.9</ele>
        <time>2015-09-22T10:22:48Z</time>
      </trkpt>
      <trkpt lat="42.36913" lon="0.10224">
        <ele>877.8</ele>
        <time>2015-09-22T10:22:49Z</time>
      </trkpt>
      <trkpt lat="42.36916" lon="0.10223">
        <ele>877.6</ele>
        <time>2015-09-22T10:22:50Z</time>
      </trkpt>
      <trkpt lat="42.36918" lon="0.10221">
        <ele>877.5</ele>
        <time>2015-09-22T10:22:51Z</time>
      </trkpt>
      <trkpt lat="42.36921" lon="0.1022">
        <ele>877.4</ele>
        <time>2015-09-22T10:22:52Z</time>
      </trkpt>
      <trkpt lat="42.36924" lon="0.10219">
        <ele>877.3</ele>
        <time>2015-09-22T10:22:53Z</time>
      </trkpt>
      <trkpt lat="42.36929" lon="0.10218">
        <ele>877.1</ele>
        <time>2015-09-22T10:22:55Z</time>
      </trkpt>
      <trkpt lat="42.36933" lon="0.10215">
        <ele>877</ele>
        <time>2015-09-22T10:22:57Z</time>
      </trkpt>
      <trkpt lat="42.36937" lon="0.10211">
        <ele>876.9</ele>
        <time>2015-09-22T10:22:59Z</time>
      </trkpt>
      <trkpt lat="42.3694" lon="0.10206">
        <ele>876.7</ele>
        <time>2015-09-22T10:23:01Z</time>
      </trkpt>
      <trkpt lat="42.36942" lon="0.102">
        <ele>876.1</ele>
        <time>2015-09-22T10:23:03Z</time>
      </trkpt>
      <trkpt lat="42.36945" lon="0.10196">
        <ele>875.6</ele>
        <time>2015-09-22T10:23:05Z</time>
      </trkpt>
      <trkpt lat="42.36948" lon="0.10191">
        <ele>875</ele>
        <time>2015-09-22T10:23:07Z</time>
      </trkpt>
      <trkpt lat="42.36949" lon="0.10187">
        <ele>874.7</ele>
        <time>2015-09-22T10:23:10Z</time>
      </trkpt>
      <trkpt lat="42.36951" lon="0.10185">
        <ele>874.3</ele>
        <time>2015-09-22T10:23:12Z</time>
      </trkpt>
      <trkpt lat="42.36955" lon="0.1018">
        <ele>873.8</ele>
        <time>2015-09-22T10:23:14Z</time>
      </trkpt>
      <trkpt lat="42.36958" lon="0.10176">
        <ele>873.3</ele>
        <time>2015-09-22T10:23:16Z</time>
      </trkpt>
      <trkpt lat="42.36962" lon="0.10171">
        <ele>871.9</ele>
        <time>2015-09-22T10:23:18Z</time>
      </trkpt>
      <trkpt lat="42.36964" lon="0.10167">
        <ele>871.1</ele>
        <time>2015-09-22T10:23:19Z</time>
      </trkpt>
      <trkpt lat="42.36965" lon="0.10164">
        <ele>870.3</ele>
        <time>2015-09-22T10:23:20Z</time>
      </trkpt>
      <trkpt lat="42.36967" lon="0.1016">
        <ele>869.6</ele>
        <time>2015-09-22T10:23:21Z</time>
      </trkpt>
      <trkpt lat="42.36968" lon="0.10156">
        <ele>868.9</ele>
        <time>2015-09-22T10:23:22Z</time>
      </trkpt>
      <trkpt lat="42.36969" lon="0.10152">
        <ele>868.3</ele>
        <time>2015-09-22T10:23:23Z</time>
      </trkpt>
      <trkpt lat="42.36971" lon="0.10148">
        <ele>867.7</ele>
        <time>2015-09-22T10:23:24Z</time>
      </trkpt>
      <trkpt lat="42.36972" lon="0.10144">
        <ele>867.1</ele>
        <time>2015-09-22T10:23:25Z</time>
      </trkpt>
      <trkpt lat="42.36974" lon="0.10138">
        <ele>866.1</ele>
        <time>2015-09-22T10:23:27Z</time>
      </trkpt>
      <trkpt lat="42.36975" lon="0.10132">
        <ele>865.4</ele>
        <time>2015-09-22T10:23:29Z</time>
      </trkpt>
      <trkpt lat="42.36974" lon="0.10126">
        <ele>865.3</ele>
        <time>2015-09-22T10:34:05Z</time>
      </trkpt>
      <trkpt lat="42.36974" lon="0.10122">
        <ele>865.1</ele>
        <time>2015-09-22T10:34:07Z</time>
      </trkpt>
      <trkpt lat="42.36975" lon="0.10115">
        <ele>864.7</ele>
        <time>2015-09-22T10:34:33Z</time>
      </trkpt>
      <trkpt lat="42.36975" lon="0.10111">
        <ele>864.5</ele>
        <time>2015-09-22T10:34:34Z</time>
      </trkpt>
      <trkpt lat="42.36975" lon="0.10107">
        <ele>864.4</ele>
        <time>2015-09-22T10:34:35Z</time>
      </trkpt>
      <trkpt lat="42.36974" lon="0.10103">
        <ele>864.4</ele>
        <time>2015-09-22T10:34:36Z</time>
      </trkpt>
      <trkpt lat="42.36974" lon="0.10099">
        <ele>864.2</ele>
        <time>2015-09-22T10:34:37Z</time>
      </trkpt>
      <trkpt lat="42.36974" lon="0.10094">
        <ele>864.1</ele>
        <time>2015-09-22T10:34:38Z</time>
      </trkpt>
      <trkpt lat="42.36974" lon="0.1009">
        <ele>863.9</ele>
        <time>2015-09-22T10:34:39Z</time>
      </trkpt>
      <trkpt lat="42.36974" lon="0.10085">
        <ele>863.8</ele>
        <time>2015-09-22T10:34:40Z</time>
      </trkpt>
      <trkpt lat="42.36972" lon="0.10081">
        <ele>863.9</ele>
        <time>2015-09-22T10:34:41Z</time>
      </trkpt>
      <trkpt lat="42.3697" lon="0.10075">
        <ele>864</ele>
        <time>2015-09-22T10:34:42Z</time>
      </trkpt>
      <trkpt lat="42.36967" lon="0.10069">
        <ele>864.3</ele>
        <time>2015-09-22T10:34:43Z</time>
      </trkpt>
      <trkpt lat="42.36964" lon="0.10065">
        <ele>864.5</ele>
        <time>2015-09-22T10:34:44Z</time>
      </trkpt>
      <trkpt lat="42.36962" lon="0.10063">
        <ele>864.8</ele>
        <time>2015-09-22T10:34:45Z</time>
      </trkpt>
      <trkpt lat="42.3696" lon="0.10057">
        <ele>864.8</ele>
        <time>2015-09-22T10:34:47Z</time>
      </trkpt>
      <trkpt lat="42.36958" lon="0.10054">
        <ele>864.7</ele>
        <time>2015-09-22T10:34:48Z</time>
      </trkpt>
      <trkpt lat="42.36957" lon="0.1005">
        <ele>864.6</ele>
        <time>2015-09-22T10:34:49Z</time>
      </trkpt>
      <trkpt lat="42.36956" lon="0.10046">
        <ele>864.5</ele>
        <time>2015-09-22T10:34:50Z</time>
      </trkpt>
      <trkpt lat="42.36954" lon="0.10042">
        <ele>864.4</ele>
        <time>2015-09-22T10:34:51Z</time>
      </trkpt>
      <trkpt lat="42.36952" lon="0.10038">
        <ele>864.8</ele>
        <time>2015-09-22T10:34:52Z</time>
      </trkpt>
      <trkpt lat="42.36949" lon="0.10034">
        <ele>865.3</ele>
        <time>2015-09-22T10:34:53Z</time>
      </trkpt>
      <trkpt lat="42.36947" lon="0.1003">
        <ele>865.7</ele>
        <time>2015-09-22T10:34:54Z</time>
      </trkpt>
      <trkpt lat="42.36944" lon="0.10024">
        <ele>866.2</ele>
        <time>2015-09-22T10:34:55Z</time>
      </trkpt>
      <trkpt lat="42.36942" lon="0.10019">
        <ele>866.6</ele>
        <time>2015-09-22T10:34:56Z</time>
      </trkpt>
      <trkpt lat="42.36943" lon="0.10011">
        <ele>866.9</ele>
        <time>2015-09-22T10:34:57Z</time>
      </trkpt>
      <trkpt lat="42.36943" lon="0.10004">
        <ele>867.3</ele>
        <time>2015-09-22T10:34:58Z</time>
      </trkpt>
      <trkpt lat="42.36944" lon="0.09999">
        <ele>867.5</ele>
        <time>2015-09-22T10:34:59Z</time>
      </trkpt>
      <trkpt lat="42.36944" lon="0.09993">
        <ele>867.7</ele>
        <time>2015-09-22T10:35:00Z</time>
      </trkpt>
      <trkpt lat="42.36948" lon="0.09992">
        <ele>867.5</ele>
        <time>2015-09-22T10:35:02Z</time>
      </trkpt>
      <trkpt lat="42.36953" lon="0.0999">
        <ele>867.4</ele>
        <time>2015-09-22T10:35:04Z</time>
      </trkpt>
      <trkpt lat="42.36956" lon="0.09987">
        <ele>867.4</ele>
        <time>2015-09-22T10:35:06Z</time>
      </trkpt>
      <trkpt lat="42.36957" lon="0.09983">
        <ele>867.5</ele>
        <time>2015-09-22T10:35:08Z</time>
      </trkpt>
      <trkpt lat="42.3696" lon="0.09981">
        <ele>867.5</ele>
        <time>2015-09-22T10:35:10Z</time>
      </trkpt>
      <trkpt lat="42.36962" lon="0.09979">
        <ele>867.4</ele>
        <time>2015-09-22T10:35:12Z</time>
      </trkpt>
      <trkpt lat="42.36965" lon="0.09978">
        <ele>867.3</ele>
        <time>2015-09-22T10:35:14Z</time>
      </trkpt>
      <trkpt lat="42.36968" lon="0.09976">
        <ele>867.2</ele>
        <time>2015-09-22T10:35:16Z</time>
      </trkpt>
      <trkpt lat="42.3697" lon="0.09974">
        <ele>867.1</ele>
        <time>2015-09-22T10:35:18Z</time>
      </trkpt>
      <trkpt lat="42.36973" lon="0.09972">
        <ele>867</ele>
        <time>2015-09-22T10:35:20Z</time>
      </trkpt>
      <trkpt lat="42.36975" lon="0.09969">
        <ele>867.1</ele>
        <time>2015-09-22T10:35:25Z</time>
      </trkpt>
      <trkpt lat="42.36976" lon="0.09966">
        <ele>867.2</ele>
        <time>2015-09-22T10:35:31Z</time>
      </trkpt>
      <trkpt lat="42.36978" lon="0.09963">
        <ele>867.3</ele>
        <time>2015-09-22T10:35:36Z</time>
      </trkpt>
      <trkpt lat="42.36981" lon="0.09961">
        <ele>867.2</ele>
        <time>2015-09-22T10:35:39Z</time>
      </trkpt>
      <trkpt lat="42.36985" lon="0.09959">
        <ele>867</ele>
        <time>2015-09-22T10:35:41Z</time>
      </trkpt>
      <trkpt lat="42.3699" lon="0.09956">
        <ele>866.5</ele>
        <time>2015-09-22T10:35:43Z</time>
      </trkpt>
      <trkpt lat="42.36993" lon="0.09954">
        <ele>866.2</ele>
        <time>2015-09-22T10:35:44Z</time>
      </trkpt>
      <trkpt lat="42.36996" lon="0.09952">
        <ele>865.8</ele>
        <time>2015-09-22T10:35:45Z</time>
      </trkpt>
      <trkpt lat="42.36999" lon="0.09949">
        <ele>865.3</ele>
        <time>2015-09-22T10:35:46Z</time>
      </trkpt>
      <trkpt lat="42.37002" lon="0.09946">
        <ele>864.9</ele>
        <time>2015-09-22T10:35:47Z</time>
      </trkpt>
      <trkpt lat="42.37005" lon="0.09944">
        <ele>864.5</ele>
        <time>2015-09-22T10:35:48Z</time>
      </trkpt>
      <trkpt lat="42.37008" lon="0.09941">
        <ele>864.1</ele>
        <time>2015-09-22T10:35:49Z</time>
      </trkpt>
      <trkpt lat="42.37011" lon="0.09939">
        <ele>863.8</ele>
        <time>2015-09-22T10:35:50Z</time>
      </trkpt>
      <trkpt lat="42.37015" lon="0.09936">
        <ele>863.4</ele>
        <time>2015-09-22T10:35:51Z</time>
      </trkpt>
      <trkpt lat="42.37018" lon="0.09934">
        <ele>863</ele>
        <time>2015-09-22T10:35:52Z</time>
      </trkpt>
      <trkpt lat="42.37022" lon="0.09931">
        <ele>862.6</ele>
        <time>2015-09-22T10:35:53Z</time>
      </trkpt>
      <trkpt lat="42.37026" lon="0.0993">
        <ele>862.2</ele>
        <time>2015-09-22T10:35:54Z</time>
      </trkpt>
      <trkpt lat="42.3703" lon="0.09929">
        <ele>861.9</ele>
        <time>2015-09-22T10:35:55Z</time>
      </trkpt>
      <trkpt lat="42.37033" lon="0.09928">
        <ele>861.7</ele>
        <time>2015-09-22T10:35:56Z</time>
      </trkpt>
      <trkpt lat="42.37036" lon="0.09927">
        <ele>861.5</ele>
        <time>2015-09-22T10:35:57Z</time>
      </trkpt>
      <trkpt lat="42.37038" lon="0.09926">
        <ele>861.2</ele>
        <time>2015-09-22T10:35:58Z</time>
      </trkpt>
      <trkpt lat="42.37041" lon="0.09923">
        <ele>860.9</ele>
        <time>2015-09-22T10:35:59Z</time>
      </trkpt>
      <trkpt lat="42.37043" lon="0.09922">
        <ele>860.7</ele>
        <time>2015-09-22T10:36:00Z</time>
      </trkpt>
      <trkpt lat="42.37046" lon="0.0992">
        <ele>860.4</ele>
        <time>2015-09-22T10:36:01Z</time>
      </trkpt>
      <trkpt lat="42.37048" lon="0.09918">
        <ele>860.1</ele>
        <time>2015-09-22T10:36:02Z</time>
      </trkpt>
      <trkpt lat="42.37051" lon="0.09917">
        <ele>859.9</ele>
        <time>2015-09-22T10:36:03Z</time>
      </trkpt>
      <trkpt lat="42.37054" lon="0.09915">
        <ele>859.7</ele>
        <time>2015-09-22T10:36:04Z</time>
      </trkpt>
      <trkpt lat="42.37057" lon="0.09914">
        <ele>859.5</ele>
        <time>2015-09-22T10:36:05Z</time>
      </trkpt>
      <trkpt lat="42.37059" lon="0.0991">
        <ele>859.2</ele>
        <time>2015-09-22T10:36:07Z</time>
      </trkpt>
      <trkpt lat="42.37059" lon="0.09906">
        <ele>859.2</ele>
        <time>2015-09-22T10:36:09Z</time>
      </trkpt>
      <trkpt lat="42.37058" lon="0.09902">
        <ele>859.1</ele>
        <time>2015-09-22T10:36:11Z</time>
      </trkpt>
      <trkpt lat="42.3706" lon="0.09898">
        <ele>859</ele>
        <time>2015-09-22T10:36:13Z</time>
      </trkpt>
      <trkpt lat="42.37063" lon="0.09896">
        <ele>858.9</ele>
        <time>2015-09-22T10:36:15Z</time>
      </trkpt>
      <trkpt lat="42.37067" lon="0.09893">
        <ele>858.9</ele>
        <time>2015-09-22T10:36:17Z</time>
      </trkpt>
      <trkpt lat="42.37072" lon="0.09888">
        <ele>858.9</ele>
        <time>2015-09-22T10:36:19Z</time>
      </trkpt>
      <trkpt lat="42.37075" lon="0.09885">
        <ele>859</ele>
        <time>2015-09-22T10:36:20Z</time>
      </trkpt>
      <trkpt lat="42.37077" lon="0.09884">
        <ele>859</ele>
        <time>2015-09-22T10:36:21Z</time>
      </trkpt>
      <trkpt lat="42.37082" lon="0.09883">
        <ele>859.1</ele>
        <time>2015-09-22T10:36:29Z</time>
      </trkpt>
      <trkpt lat="42.37085" lon="0.0988">
        <ele>859.3</ele>
        <time>2015-09-22T10:36:31Z</time>
      </trkpt>
      <trkpt lat="42.37089" lon="0.09878">
        <ele>859.6</ele>
        <time>2015-09-22T10:36:33Z</time>
      </trkpt>
      <trkpt lat="42.37094" lon="0.09876">
        <ele>859.8</ele>
        <time>2015-09-22T10:36:35Z</time>
      </trkpt>
      <trkpt lat="42.37098" lon="0.09874">
        <ele>859.8</ele>
        <time>2015-09-22T10:36:37Z</time>
      </trkpt>
      <trkpt lat="42.37101" lon="0.09871">
        <ele>859.5</ele>
        <time>2015-09-22T10:36:39Z</time>
      </trkpt>
      <trkpt lat="42.37105" lon="0.09869">
        <ele>859.2</ele>
        <time>2015-09-22T10:36:41Z</time>
      </trkpt>
      <trkpt lat="42.37108" lon="0.09866">
        <ele>858.8</ele>
        <time>2015-09-22T10:36:43Z</time>
      </trkpt>
      <trkpt lat="42.37111" lon="0.09863">
        <ele>858.4</ele>
        <time>2015-09-22T10:36:45Z</time>
      </trkpt>
      <trkpt lat="42.37114" lon="0.09861">
        <ele>858.2</ele>
        <time>2015-09-22T10:36:46Z</time>
      </trkpt>
      <trkpt lat="42.37117" lon="0.09859">
        <ele>858</ele>
        <time>2015-09-22T10:36:47Z</time>
      </trkpt>
      <trkpt lat="42.37119" lon="0.09858">
        <ele>857.8</ele>
        <time>2015-09-22T10:36:48Z</time>
      </trkpt>
      <trkpt lat="42.37122" lon="0.09857">
        <ele>857.6</ele>
        <time>2015-09-22T10:36:49Z</time>
      </trkpt>
      <trkpt lat="42.37125" lon="0.09855">
        <ele>857.4</ele>
        <time>2015-09-22T10:36:51Z</time>
      </trkpt>
      <trkpt lat="42.37128" lon="0.09853">
        <ele>856.9</ele>
        <time>2015-09-22T10:37:07Z</time>
      </trkpt>
      <trkpt lat="42.37132" lon="0.09851">
        <ele>856.3</ele>
        <time>2015-09-22T10:37:09Z</time>
      </trkpt>
      <trkpt lat="42.37136" lon="0.09849">
        <ele>855.8</ele>
        <time>2015-09-22T10:37:11Z</time>
      </trkpt>
      <trkpt lat="42.3714" lon="0.09848">
        <ele>855.3</ele>
        <time>2015-09-22T10:37:13Z</time>
      </trkpt>
      <trkpt lat="42.37143" lon="0.09847">
        <ele>854.9</ele>
        <time>2015-09-22T10:37:15Z</time>
      </trkpt>
      <trkpt lat="42.37141" lon="0.09848">
        <ele>855.3</ele>
        <time>2015-09-22T10:37:34Z</time>
      </trkpt>
      <trkpt lat="42.37135" lon="0.0985">
        <ele>855.9</ele>
        <time>2015-09-22T10:37:37Z</time>
      </trkpt>
      <trkpt lat="42.37129" lon="0.09852">
        <ele>856.7</ele>
        <time>2015-09-22T10:37:39Z</time>
      </trkpt>
      <trkpt lat="42.37125" lon="0.09854">
        <ele>857.2</ele>
        <time>2015-09-22T10:37:40Z</time>
      </trkpt>
      <trkpt lat="42.37122" lon="0.09856">
        <ele>857.4</ele>
        <time>2015-09-22T10:37:41Z</time>
      </trkpt>
      <trkpt lat="42.37119" lon="0.09857">
        <ele>857.7</ele>
        <time>2015-09-22T10:37:42Z</time>
      </trkpt>
      <trkpt lat="42.37115" lon="0.09859">
        <ele>857.9</ele>
        <time>2015-09-22T10:37:43Z</time>
      </trkpt>
      <trkpt lat="42.37112" lon="0.09862">
        <ele>858.2</ele>
        <time>2015-09-22T10:37:44Z</time>
      </trkpt>
      <trkpt lat="42.37109" lon="0.09864">
        <ele>858.5</ele>
        <time>2015-09-22T10:37:45Z</time>
      </trkpt>
      <trkpt lat="42.37106" lon="0.09866">
        <ele>858.8</ele>
        <time>2015-09-22T10:37:46Z</time>
      </trkpt>
      <trkpt lat="42.37103" lon="0.09868">
        <ele>859.1</ele>
        <time>2015-09-22T10:37:47Z</time>
      </trkpt>
      <trkpt lat="42.371" lon="0.09871">
        <ele>859.4</ele>
        <time>2015-09-22T10:37:48Z</time>
      </trkpt>
      <trkpt lat="42.37098" lon="0.09873">
        <ele>859.7</ele>
        <time>2015-09-22T10:37:49Z</time>
      </trkpt>
      <trkpt lat="42.37095" lon="0.09875">
        <ele>859.9</ele>
        <time>2015-09-22T10:37:50Z</time>
      </trkpt>
      <trkpt lat="42.37092" lon="0.09877">
        <ele>859.7</ele>
        <time>2015-09-22T10:37:51Z</time>
      </trkpt>
      <trkpt lat="42.37089" lon="0.09879">
        <ele>859.5</ele>
        <time>2015-09-22T10:37:52Z</time>
      </trkpt>
      <trkpt lat="42.37086" lon="0.09879">
        <ele>859.4</ele>
        <time>2015-09-22T10:37:53Z</time>
      </trkpt>
      <trkpt lat="42.37082" lon="0.0988">
        <ele>859.3</ele>
        <time>2015-09-22T10:37:54Z</time>
      </trkpt>
      <trkpt lat="42.37077" lon="0.09884">
        <ele>859</ele>
        <time>2015-09-22T10:37:56Z</time>
      </trkpt>
      <trkpt lat="42.37074" lon="0.09886">
        <ele>859</ele>
        <time>2015-09-22T10:37:59Z</time>
      </trkpt>
      <trkpt lat="42.37069" lon="0.09889">
        <ele>858.9</ele>
        <time>2015-09-22T10:38:01Z</time>
      </trkpt>
      <trkpt lat="42.37067" lon="0.09892">
        <ele>858.9</ele>
        <time>2015-09-22T10:38:02Z</time>
      </trkpt>
      <trkpt lat="42.37064" lon="0.09894">
        <ele>858.9</ele>
        <time>2015-09-22T10:38:03Z</time>
      </trkpt>
      <trkpt lat="42.37062" lon="0.09896">
        <ele>859</ele>
        <time>2015-09-22T10:38:04Z</time>
      </trkpt>
      <trkpt lat="42.37058" lon="0.09901">
        <ele>859.1</ele>
        <time>2015-09-22T10:38:06Z</time>
      </trkpt>
      <trkpt lat="42.37055" lon="0.09902">
        <ele>859.2</ele>
        <time>2015-09-22T10:38:08Z</time>
      </trkpt>
      <trkpt lat="42.37055" lon="0.09908">
        <ele>859.4</ele>
        <time>2015-09-22T10:38:10Z</time>
      </trkpt>
      <trkpt lat="42.37055" lon="0.09914">
        <ele>859.5</ele>
        <time>2015-09-22T10:38:12Z</time>
      </trkpt>
      <trkpt lat="42.37053" lon="0.09918">
        <ele>859.8</ele>
        <time>2015-09-22T10:38:14Z</time>
      </trkpt>
      <trkpt lat="42.37048" lon="0.0992">
        <ele>860.2</ele>
        <time>2015-09-22T10:38:16Z</time>
      </trkpt>
      <trkpt lat="42.37045" lon="0.09921">
        <ele>860.5</ele>
        <time>2015-09-22T10:38:17Z</time>
      </trkpt>
      <trkpt lat="42.37042" lon="0.09922">
        <ele>860.8</ele>
        <time>2015-09-22T10:38:18Z</time>
      </trkpt>
      <trkpt lat="42.37039" lon="0.09924">
        <ele>861.1</ele>
        <time>2015-09-22T10:38:19Z</time>
      </trkpt>
      <trkpt lat="42.37037" lon="0.09926">
        <ele>861.3</ele>
        <time>2015-09-22T10:38:20Z</time>
      </trkpt>
      <trkpt lat="42.37034" lon="0.09927">
        <ele>861.6</ele>
        <time>2015-09-22T10:38:21Z</time>
      </trkpt>
      <trkpt lat="42.37038" lon="0.09924">
        <ele>861.1</ele>
        <time>2015-09-22T10:38:31Z</time>
      </trkpt>
      <trkpt lat="42.37041" lon="0.09922">
        <ele>860.9</ele>
        <time>2015-09-22T10:38:32Z</time>
      </trkpt>
      <trkpt lat="42.37043" lon="0.0992">
        <ele>860.6</ele>
        <time>2015-09-22T10:38:33Z</time>
      </trkpt>
      <trkpt lat="42.37046" lon="0.09919">
        <ele>860.3</ele>
        <time>2015-09-22T10:38:34Z</time>
      </trkpt>
      <trkpt lat="42.3705" lon="0.09917">
        <ele>860</ele>
        <time>2015-09-22T10:38:35Z</time>
      </trkpt>
      <trkpt lat="42.37053" lon="0.09915">
        <ele>859.7</ele>
        <time>2015-09-22T10:38:36Z</time>
      </trkpt>
      <trkpt lat="42.37056" lon="0.09914">
        <ele>859.5</ele>
        <time>2015-09-22T10:38:37Z</time>
      </trkpt>
      <trkpt lat="42.37059" lon="0.09909">
        <ele>859.2</ele>
        <time>2015-09-22T10:38:39Z</time>
      </trkpt>
      <trkpt lat="42.37058" lon="0.09906">
        <ele>859.2</ele>
        <time>2015-09-22T10:38:41Z</time>
      </trkpt>
      <trkpt lat="42.37058" lon="0.09901">
        <ele>859.1</ele>
        <time>2015-09-22T10:38:43Z</time>
      </trkpt>
      <trkpt lat="42.3706" lon="0.09897">
        <ele>859</ele>
        <time>2015-09-22T10:38:45Z</time>
      </trkpt>
      <trkpt lat="42.37064" lon="0.09894">
        <ele>858.9</ele>
        <time>2015-09-22T10:38:47Z</time>
      </trkpt>
      <trkpt lat="42.37069" lon="0.09889">
        <ele>858.9</ele>
        <time>2015-09-22T10:38:49Z</time>
      </trkpt>
      <trkpt lat="42.37072" lon="0.09886">
        <ele>858.9</ele>
        <time>2015-09-22T10:38:50Z</time>
      </trkpt>
      <trkpt lat="42.37076" lon="0.09883">
        <ele>859</ele>
        <time>2015-09-22T10:38:51Z</time>
      </trkpt>
      <trkpt lat="42.37079" lon="0.09882">
        <ele>859.1</ele>
        <time>2015-09-22T10:38:52Z</time>
      </trkpt>
      <trkpt lat="42.37082" lon="0.0988">
        <ele>859.3</ele>
        <time>2015-09-22T10:38:53Z</time>
      </trkpt>
      <trkpt lat="42.37085" lon="0.09878">
        <ele>859.4</ele>
        <time>2015-09-22T10:38:54Z</time>
      </trkpt>
      <trkpt lat="42.37089" lon="0.09876">
        <ele>859.6</ele>
        <time>2015-09-22T10:38:56Z</time>
      </trkpt>
      <trkpt lat="42.37093" lon="0.09874">
        <ele>859.8</ele>
        <time>2015-09-22T10:38:58Z</time>
      </trkpt>
      <trkpt lat="42.37098" lon="0.09872">
        <ele>859.6</ele>
        <time>2015-09-22T10:39:00Z</time>
      </trkpt>
      <trkpt lat="42.37102" lon="0.09869">
        <ele>859.2</ele>
        <time>2015-09-22T10:39:02Z</time>
      </trkpt>
      <trkpt lat="42.37107" lon="0.09866">
        <ele>858.8</ele>
        <time>2015-09-22T10:39:04Z</time>
      </trkpt>
      <trkpt lat="42.37111" lon="0.09862">
        <ele>858.3</ele>
        <time>2015-09-22T10:39:06Z</time>
      </trkpt>
      <trkpt lat="42.37115" lon="0.09859">
        <ele>857.9</ele>
        <time>2015-09-22T10:39:08Z</time>
      </trkpt>
      <trkpt lat="42.37118" lon="0.09858">
        <ele>857.7</ele>
        <time>2015-09-22T10:39:09Z</time>
      </trkpt>
      <trkpt lat="42.37121" lon="0.09856">
        <ele>857.5</ele>
        <time>2015-09-22T10:39:10Z</time>
      </trkpt>
      <trkpt lat="42.37124" lon="0.09854">
        <ele>857.2</ele>
        <time>2015-09-22T10:39:11Z</time>
      </trkpt>
      <trkpt lat="42.37126" lon="0.09852">
        <ele>856.8</ele>
        <time>2015-09-22T10:39:12Z</time>
      </trkpt>
      <trkpt lat="42.37129" lon="0.09851">
        <ele>856.4</ele>
        <time>2015-09-22T10:39:13Z</time>
      </trkpt>
      <trkpt lat="42.37132" lon="0.0985">
        <ele>856.1</ele>
        <time>2015-09-22T10:39:14Z</time>
      </trkpt>
      <trkpt lat="42.37135" lon="0.09849">
        <ele>855.8</ele>
        <time>2015-09-22T10:39:15Z</time>
      </trkpt>
      <trkpt lat="42.37137" lon="0.09848">
        <ele>855.5</ele>
        <time>2015-09-22T10:39:17Z</time>
      </trkpt>
      <trkpt lat="42.37134" lon="0.09851">
        <ele>856.1</ele>
        <time>2015-09-22T10:41:54Z</time>
      </trkpt>
      <trkpt lat="42.37131" lon="0.09852">
        <ele>856.5</ele>
        <time>2015-09-22T10:41:55Z</time>
      </trkpt>
      <trkpt lat="42.37128" lon="0.09853">
        <ele>856.9</ele>
        <time>2015-09-22T10:41:56Z</time>
      </trkpt>
      <trkpt lat="42.37125" lon="0.09855">
        <ele>857.4</ele>
        <time>2015-09-22T10:41:57Z</time>
      </trkpt>
      <trkpt lat="42.37122" lon="0.09857">
        <ele>857.6</ele>
        <time>2015-09-22T10:41:58Z</time>
      </trkpt>
      <trkpt lat="42.37118" lon="0.09858">
        <ele>857.8</ele>
        <time>2015-09-22T10:41:59Z</time>
      </trkpt>
      <trkpt lat="42.37115" lon="0.0986">
        <ele>858.1</ele>
        <time>2015-09-22T10:42:00Z</time>
      </trkpt>
      <trkpt lat="42.37112" lon="0.09862">
        <ele>858.3</ele>
        <time>2015-09-22T10:42:01Z</time>
      </trkpt>
      <trkpt lat="42.3711" lon="0.09864">
        <ele>858.5</ele>
        <time>2015-09-22T10:42:02Z</time>
      </trkpt>
      <trkpt lat="42.37107" lon="0.09865">
        <ele>858.6</ele>
        <time>2015-09-22T10:42:03Z</time>
      </trkpt>
      <trkpt lat="42.37104" lon="0.09865">
        <ele>858.5</ele>
        <time>2015-09-22T10:42:04Z</time>
      </trkpt>
      <trkpt lat="42.37101" lon="0.09864">
        <ele>858.3</ele>
        <time>2015-09-22T10:42:05Z</time>
      </trkpt>
      <trkpt lat="42.37098" lon="0.09864">
        <ele>858.2</ele>
        <time>2015-09-22T10:42:06Z</time>
      </trkpt>
      <trkpt lat="42.37095" lon="0.09863">
        <ele>857.9</ele>
        <time>2015-09-22T10:42:07Z</time>
      </trkpt>
      <trkpt lat="42.37092" lon="0.09862">
        <ele>857.8</ele>
        <time>2015-09-22T10:42:08Z</time>
      </trkpt>
      <trkpt lat="42.37089" lon="0.09863">
        <ele>857.8</ele>
        <time>2015-09-22T10:42:09Z</time>
      </trkpt>
      <trkpt lat="42.37086" lon="0.09864">
        <ele>857.8</ele>
        <time>2015-09-22T10:42:10Z</time>
      </trkpt>
      <trkpt lat="42.37083" lon="0.09864">
        <ele>857.9</ele>
        <time>2015-09-22T10:42:11Z</time>
      </trkpt>
      <trkpt lat="42.3708" lon="0.09865">
        <ele>857.9</ele>
        <time>2015-09-22T10:42:12Z</time>
      </trkpt>
      <trkpt lat="42.37084" lon="0.09864">
        <ele>857.9</ele>
        <time>2015-09-22T10:42:15Z</time>
      </trkpt>
      <trkpt lat="42.3708" lon="0.09862">
        <ele>857.5</ele>
        <time>2015-09-22T10:42:23Z</time>
      </trkpt>
      <trkpt lat="42.37075" lon="0.09861">
        <ele>857.2</ele>
        <time>2015-09-22T10:42:25Z</time>
      </trkpt>
      <trkpt lat="42.37071" lon="0.0986">
        <ele>857</ele>
        <time>2015-09-22T10:42:26Z</time>
      </trkpt>
      <trkpt lat="42.37067" lon="0.0986">
        <ele>856.8</ele>
        <time>2015-09-22T10:42:27Z</time>
      </trkpt>
      <trkpt lat="42.37064" lon="0.0986">
        <ele>856.7</ele>
        <time>2015-09-22T10:42:28Z</time>
      </trkpt>
      <trkpt lat="42.3706" lon="0.09861">
        <ele>856.8</ele>
        <time>2015-09-22T10:42:29Z</time>
      </trkpt>
      <trkpt lat="42.37057" lon="0.09863">
        <ele>856.9</ele>
        <time>2015-09-22T10:42:30Z</time>
      </trkpt>
      <trkpt lat="42.37054" lon="0.09865">
        <ele>857.2</ele>
        <time>2015-09-22T10:42:31Z</time>
      </trkpt>
      <trkpt lat="42.37052" lon="0.09868">
        <ele>857.5</ele>
        <time>2015-09-22T10:42:32Z</time>
      </trkpt>
      <trkpt lat="42.37049" lon="0.09873">
        <ele>858</ele>
        <time>2015-09-22T10:42:34Z</time>
      </trkpt>
      <trkpt lat="42.37046" lon="0.09878">
        <ele>858.3</ele>
        <time>2015-09-22T10:42:36Z</time>
      </trkpt>
      <trkpt lat="42.37043" lon="0.09882">
        <ele>858.5</ele>
        <time>2015-09-22T10:42:38Z</time>
      </trkpt>
      <trkpt lat="42.3704" lon="0.09886">
        <ele>858.7</ele>
        <time>2015-09-22T10:42:40Z</time>
      </trkpt>
      <trkpt lat="42.37037" lon="0.09886">
        <ele>858.9</ele>
        <time>2015-09-22T10:42:42Z</time>
      </trkpt>
      <trkpt lat="42.37034" lon="0.09886">
        <ele>859</ele>
        <time>2015-09-22T10:42:44Z</time>
      </trkpt>
      <trkpt lat="42.37029" lon="0.09886">
        <ele>859.2</ele>
        <time>2015-09-22T10:42:46Z</time>
      </trkpt>
      <trkpt lat="42.37024" lon="0.09887">
        <ele>859.5</ele>
        <time>2015-09-22T10:42:47Z</time>
      </trkpt>
      <trkpt lat="42.3702" lon="0.09888">
        <ele>859.7</ele>
        <time>2015-09-22T10:42:48Z</time>
      </trkpt>
      <trkpt lat="42.37016" lon="0.09888">
        <ele>859.8</ele>
        <time>2015-09-22T10:42:49Z</time>
      </trkpt>
      <trkpt lat="42.37012" lon="0.09887">
        <ele>860</ele>
        <time>2015-09-22T10:42:50Z</time>
      </trkpt>
      <trkpt lat="42.37008" lon="0.09886">
        <ele>860</ele>
        <time>2015-09-22T10:42:51Z</time>
      </trkpt>
      <trkpt lat="42.37004" lon="0.09884">
        <ele>860</ele>
        <time>2015-09-22T10:42:52Z</time>
      </trkpt>
      <trkpt lat="42.37001" lon="0.09883">
        <ele>860.1</ele>
        <time>2015-09-22T10:42:53Z</time>
      </trkpt>
      <trkpt lat="42.36998" lon="0.0988">
        <ele>859.9</ele>
        <time>2015-09-22T10:43:01Z</time>
      </trkpt>
      <trkpt lat="42.36994" lon="0.09875">
        <ele>859.7</ele>
        <time>2015-09-22T10:43:03Z</time>
      </trkpt>
      <trkpt lat="42.36992" lon="0.09873">
        <ele>859.5</ele>
        <time>2015-09-22T10:43:04Z</time>
      </trkpt>
      <trkpt lat="42.3699" lon="0.0987">
        <ele>859.2</ele>
        <time>2015-09-22T10:43:05Z</time>
      </trkpt>
      <trkpt lat="42.36988" lon="0.09867">
        <ele>858.9</ele>
        <time>2015-09-22T10:43:06Z</time>
      </trkpt>
      <trkpt lat="42.36987" lon="0.09863">
        <ele>858.5</ele>
        <time>2015-09-22T10:43:07Z</time>
      </trkpt>
      <trkpt lat="42.36986" lon="0.09859">
        <ele>858</ele>
        <time>2015-09-22T10:43:08Z</time>
      </trkpt>
      <trkpt lat="42.36985" lon="0.09855">
        <ele>857.5</ele>
        <time>2015-09-22T10:43:09Z</time>
      </trkpt>
      <trkpt lat="42.36983" lon="0.09852">
        <ele>857.1</ele>
        <time>2015-09-22T10:43:10Z</time>
      </trkpt>
      <trkpt lat="42.36981" lon="0.09848">
        <ele>856.7</ele>
        <time>2015-09-22T10:43:11Z</time>
      </trkpt>
      <trkpt lat="42.36979" lon="0.09845">
        <ele>856.4</ele>
        <time>2015-09-22T10:43:12Z</time>
      </trkpt>
      <trkpt lat="42.36977" lon="0.09842">
        <ele>856.1</ele>
        <time>2015-09-22T10:43:13Z</time>
      </trkpt>
      <trkpt lat="42.36974" lon="0.09839">
        <ele>855.8</ele>
        <time>2015-09-22T10:43:14Z</time>
      </trkpt>
      <trkpt lat="42.36972" lon="0.09837">
        <ele>855.5</ele>
        <time>2015-09-22T10:43:15Z</time>
      </trkpt>
      <trkpt lat="42.36968" lon="0.09834">
        <ele>855.2</ele>
        <time>2015-09-22T10:43:16Z</time>
      </trkpt>
      <trkpt lat="42.36965" lon="0.09832">
        <ele>855</ele>
        <time>2015-09-22T10:43:17Z</time>
      </trkpt>
      <trkpt lat="42.36963" lon="0.0983">
        <ele>854.9</ele>
        <time>2015-09-22T10:43:18Z</time>
      </trkpt>
      <trkpt lat="42.36958" lon="0.09828">
        <ele>854.8</ele>
        <time>2015-09-22T10:43:20Z</time>
      </trkpt>
      <trkpt lat="42.36953" lon="0.09825">
        <ele>854.6</ele>
        <time>2015-09-22T10:43:22Z</time>
      </trkpt>
      <trkpt lat="42.3695" lon="0.09824">
        <ele>854.5</ele>
        <time>2015-09-22T10:43:23Z</time>
      </trkpt>
      <trkpt lat="42.36947" lon="0.09822">
        <ele>854.4</ele>
        <time>2015-09-22T10:43:24Z</time>
      </trkpt>
      <trkpt lat="42.36944" lon="0.09821">
        <ele>854.4</ele>
        <time>2015-09-22T10:43:25Z</time>
      </trkpt>
      <trkpt lat="42.36941" lon="0.0982">
        <ele>854.3</ele>
        <time>2015-09-22T10:43:26Z</time>
      </trkpt>
      <trkpt lat="42.36938" lon="0.09819">
        <ele>854.3</ele>
        <time>2015-09-22T10:43:27Z</time>
      </trkpt>
      <trkpt lat="42.36934" lon="0.09818">
        <ele>854.2</ele>
        <time>2015-09-22T10:43:28Z</time>
      </trkpt>
      <trkpt lat="42.36931" lon="0.09816">
        <ele>854</ele>
        <time>2015-09-22T10:43:29Z</time>
      </trkpt>
      <trkpt lat="42.36927" lon="0.09814">
        <ele>853.8</ele>
        <time>2015-09-22T10:43:30Z</time>
      </trkpt>
      <trkpt lat="42.36923" lon="0.09812">
        <ele>853.7</ele>
        <time>2015-09-22T10:43:31Z</time>
      </trkpt>
      <trkpt lat="42.3692" lon="0.0981">
        <ele>853.5</ele>
        <time>2015-09-22T10:43:32Z</time>
      </trkpt>
      <trkpt lat="42.36916" lon="0.09807">
        <ele>853.3</ele>
        <time>2015-09-22T10:43:33Z</time>
      </trkpt>
      <trkpt lat="42.36913" lon="0.09805">
        <ele>853</ele>
        <time>2015-09-22T10:43:34Z</time>
      </trkpt>
      <trkpt lat="42.36909" lon="0.09803">
        <ele>852.8</ele>
        <time>2015-09-22T10:43:35Z</time>
      </trkpt>
      <trkpt lat="42.36905" lon="0.098">
        <ele>852.5</ele>
        <time>2015-09-22T10:43:36Z</time>
      </trkpt>
      <trkpt lat="42.369" lon="0.09795">
        <ele>852</ele>
        <time>2015-09-22T10:43:37Z</time>
      </trkpt>
      <trkpt lat="42.36896" lon="0.09792">
        <ele>851.6</ele>
        <time>2015-09-22T10:43:38Z</time>
      </trkpt>
      <trkpt lat="42.36891" lon="0.09789">
        <ele>851.7</ele>
        <time>2015-09-22T10:43:39Z</time>
      </trkpt>
      <trkpt lat="42.36886" lon="0.09786">
        <ele>852</ele>
        <time>2015-09-22T10:43:40Z</time>
      </trkpt>
      <trkpt lat="42.36881" lon="0.09782">
        <ele>852.2</ele>
        <time>2015-09-22T10:43:41Z</time>
      </trkpt>
      <trkpt lat="42.36876" lon="0.09778">
        <ele>852.5</ele>
        <time>2015-09-22T10:43:42Z</time>
      </trkpt>
      <trkpt lat="42.3687" lon="0.09773">
        <ele>852.7</ele>
        <time>2015-09-22T10:43:43Z</time>
      </trkpt>
      <trkpt lat="42.36866" lon="0.09768">
        <ele>852.9</ele>
        <time>2015-09-22T10:43:44Z</time>
      </trkpt>
      <trkpt lat="42.36861" lon="0.09764">
        <ele>853</ele>
        <time>2015-09-22T10:43:45Z</time>
      </trkpt>
      <trkpt lat="42.36855" lon="0.0976">
        <ele>853.1</ele>
        <time>2015-09-22T10:43:46Z</time>
      </trkpt>
      <trkpt lat="42.36851" lon="0.09755">
        <ele>853.2</ele>
        <time>2015-09-22T10:43:47Z</time>
      </trkpt>
      <trkpt lat="42.36846" lon="0.09751">
        <ele>853.3</ele>
        <time>2015-09-22T10:43:48Z</time>
      </trkpt>
      <trkpt lat="42.36842" lon="0.09748">
        <ele>853.4</ele>
        <time>2015-09-22T10:43:49Z</time>
      </trkpt>
      <trkpt lat="42.36838" lon="0.09745">
        <ele>853.4</ele>
        <time>2015-09-22T10:43:50Z</time>
      </trkpt>
      <trkpt lat="42.36834" lon="0.09743">
        <ele>853.4</ele>
        <time>2015-09-22T10:43:51Z</time>
      </trkpt>
      <trkpt lat="42.36831" lon="0.09742">
        <ele>853.4</ele>
        <time>2015-09-22T10:43:52Z</time>
      </trkpt>
      <trkpt lat="42.36828" lon="0.0974">
        <ele>853.4</ele>
        <time>2015-09-22T10:43:54Z</time>
      </trkpt>
      <trkpt lat="42.36831" lon="0.09741">
        <ele>853.4</ele>
        <time>2015-09-22T10:44:02Z</time>
      </trkpt>
      <trkpt lat="42.36834" lon="0.09742">
        <ele>853.4</ele>
        <time>2015-09-22T10:44:05Z</time>
      </trkpt>
      <trkpt lat="42.36836" lon="0.09744">
        <ele>853.4</ele>
        <time>2015-09-22T10:44:09Z</time>
      </trkpt>
      <trkpt lat="42.36834" lon="0.09741">
        <ele>853.4</ele>
        <time>2015-09-22T10:44:22Z</time>
      </trkpt>
      <trkpt lat="42.36832" lon="0.09737">
        <ele>853.5</ele>
        <time>2015-09-22T10:44:25Z</time>
      </trkpt>
      <trkpt lat="42.36833" lon="0.09734">
        <ele>853.5</ele>
        <time>2015-09-22T10:44:30Z</time>
      </trkpt>
      <trkpt lat="42.36835" lon="0.09731">
        <ele>853.6</ele>
        <time>2015-09-22T10:44:34Z</time>
      </trkpt>
      <trkpt lat="42.36834" lon="0.09727">
        <ele>853.7</ele>
        <time>2015-09-22T10:44:37Z</time>
      </trkpt>
      <trkpt lat="42.36831" lon="0.09721">
        <ele>853.7</ele>
        <time>2015-09-22T10:44:40Z</time>
      </trkpt>
      <trkpt lat="42.36828" lon="0.09719">
        <ele>853.7</ele>
        <time>2015-09-22T10:44:41Z</time>
      </trkpt>
      <trkpt lat="42.36826" lon="0.09717">
        <ele>853.7</ele>
        <time>2015-09-22T10:44:42Z</time>
      </trkpt>
      <trkpt lat="42.36824" lon="0.09715">
        <ele>853.7</ele>
        <time>2015-09-22T10:44:43Z</time>
      </trkpt>
      <trkpt lat="42.36822" lon="0.09711">
        <ele>853.7</ele>
        <time>2015-09-22T10:44:44Z</time>
      </trkpt>
      <trkpt lat="42.3682" lon="0.09706">
        <ele>853.9</ele>
        <time>2015-09-22T10:44:45Z</time>
      </trkpt>
      <trkpt lat="42.3682" lon="0.09702">
        <ele>854.2</ele>
        <time>2015-09-22T10:44:46Z</time>
      </trkpt>
      <trkpt lat="42.36819" lon="0.09698">
        <ele>854.5</ele>
        <time>2015-09-22T10:44:47Z</time>
      </trkpt>
      <trkpt lat="42.36817" lon="0.09694">
        <ele>854.7</ele>
        <time>2015-09-22T10:44:48Z</time>
      </trkpt>
      <trkpt lat="42.36815" lon="0.09691">
        <ele>854.8</ele>
        <time>2015-09-22T10:44:50Z</time>
      </trkpt>
      <trkpt lat="42.36811" lon="0.0969">
        <ele>854.8</ele>
        <time>2015-09-22T10:44:53Z</time>
      </trkpt>
      <trkpt lat="42.36808" lon="0.0969">
        <ele>854.7</ele>
        <time>2015-09-22T10:44:55Z</time>
      </trkpt>
      <trkpt lat="42.36805" lon="0.0969">
        <ele>854.5</ele>
        <time>2015-09-22T10:44:57Z</time>
      </trkpt>
      <trkpt lat="42.36801" lon="0.09691">
        <ele>854.4</ele>
        <time>2015-09-22T10:44:59Z</time>
      </trkpt>
      <trkpt lat="42.36798" lon="0.09693">
        <ele>854.2</ele>
        <time>2015-09-22T10:45:01Z</time>
      </trkpt>
      <trkpt lat="42.36796" lon="0.09695">
        <ele>853.9</ele>
        <time>2015-09-22T10:45:04Z</time>
      </trkpt>
      <trkpt lat="42.36794" lon="0.09697">
        <ele>853.8</ele>
        <time>2015-09-22T10:45:08Z</time>
      </trkpt>
      <trkpt lat="42.36791" lon="0.09697">
        <ele>853.7</ele>
        <time>2015-09-22T10:45:11Z</time>
      </trkpt>
      <trkpt lat="42.36787" lon="0.09698">
        <ele>853.6</ele>
        <time>2015-09-22T10:45:14Z</time>
      </trkpt>
      <trkpt lat="42.36783" lon="0.097">
        <ele>853.6</ele>
        <time>2015-09-22T10:45:16Z</time>
      </trkpt>
      <trkpt lat="42.3678" lon="0.09698">
        <ele>853.7</ele>
        <time>2015-09-22T10:45:22Z</time>
      </trkpt>
      <trkpt lat="42.36776" lon="0.09697">
        <ele>853.8</ele>
        <time>2015-09-22T10:45:24Z</time>
      </trkpt>
      <trkpt lat="42.36773" lon="0.09695">
        <ele>853.9</ele>
        <time>2015-09-22T10:45:26Z</time>
      </trkpt>
      <trkpt lat="42.3677" lon="0.09693">
        <ele>854</ele>
        <time>2015-09-22T10:45:28Z</time>
      </trkpt>
      <trkpt lat="42.36766" lon="0.09691">
        <ele>854.1</ele>
        <time>2015-09-22T10:45:30Z</time>
      </trkpt>
      <trkpt lat="42.36761" lon="0.0969">
        <ele>854.1</ele>
        <time>2015-09-22T10:45:32Z</time>
      </trkpt>
      <trkpt lat="42.36757" lon="0.09689">
        <ele>854.2</ele>
        <time>2015-09-22T10:45:34Z</time>
      </trkpt>
      <trkpt lat="42.36752" lon="0.09687">
        <ele>854.3</ele>
        <time>2015-09-22T10:45:36Z</time>
      </trkpt>
      <trkpt lat="42.36749" lon="0.09683">
        <ele>854.4</ele>
        <time>2015-09-22T10:45:38Z</time>
      </trkpt>
      <trkpt lat="42.36745" lon="0.0968">
        <ele>854.5</ele>
        <time>2015-09-22T10:45:40Z</time>
      </trkpt>
      <trkpt lat="42.36741" lon="0.09677">
        <ele>854.6</ele>
        <time>2015-09-22T10:45:42Z</time>
      </trkpt>
      <trkpt lat="42.36736" lon="0.09673">
        <ele>854.6</ele>
        <time>2015-09-22T10:45:44Z</time>
      </trkpt>
      <trkpt lat="42.36734" lon="0.09672">
        <ele>854.7</ele>
        <time>2015-09-22T10:45:45Z</time>
      </trkpt>
      <trkpt lat="42.36729" lon="0.09669">
        <ele>854.7</ele>
        <time>2015-09-22T10:45:47Z</time>
      </trkpt>
      <trkpt lat="42.36726" lon="0.09666">
        <ele>854.7</ele>
        <time>2015-09-22T10:45:49Z</time>
      </trkpt>
      <trkpt lat="42.36722" lon="0.09663">
        <ele>854.7</ele>
        <time>2015-09-22T10:45:51Z</time>
      </trkpt>
      <trkpt lat="42.3672" lon="0.09659">
        <ele>854.8</ele>
        <time>2015-09-22T10:45:53Z</time>
      </trkpt>
      <trkpt lat="42.36717" lon="0.09655">
        <ele>854.8</ele>
        <time>2015-09-22T10:45:55Z</time>
      </trkpt>
      <trkpt lat="42.36715" lon="0.09651">
        <ele>854.8</ele>
        <time>2015-09-22T10:45:57Z</time>
      </trkpt>
      <trkpt lat="42.36712" lon="0.09646">
        <ele>854.8</ele>
        <time>2015-09-22T10:45:59Z</time>
      </trkpt>
      <trkpt lat="42.36709" lon="0.0964">
        <ele>854.8</ele>
        <time>2015-09-22T10:46:01Z</time>
      </trkpt>
      <trkpt lat="42.36708" lon="0.09637">
        <ele>854.9</ele>
        <time>2015-09-22T10:46:02Z</time>
      </trkpt>
      <trkpt lat="42.36705" lon="0.09633">
        <ele>854.9</ele>
        <time>2015-09-22T10:46:03Z</time>
      </trkpt>
      <trkpt lat="42.36703" lon="0.0963">
        <ele>855</ele>
        <time>2015-09-22T10:46:04Z</time>
      </trkpt>
      <trkpt lat="42.36701" lon="0.09626">
        <ele>855.1</ele>
        <time>2015-09-22T10:46:05Z</time>
      </trkpt>
      <trkpt lat="42.36699" lon="0.09623">
        <ele>855.2</ele>
        <time>2015-09-22T10:46:06Z</time>
      </trkpt>
      <trkpt lat="42.36697" lon="0.09619">
        <ele>855.4</ele>
        <time>2015-09-22T10:46:07Z</time>
      </trkpt>
      <trkpt lat="42.36696" lon="0.09616">
        <ele>855.6</ele>
        <time>2015-09-22T10:46:08Z</time>
      </trkpt>
      <trkpt lat="42.36694" lon="0.09612">
        <ele>855.8</ele>
        <time>2015-09-22T10:46:09Z</time>
      </trkpt>
      <trkpt lat="42.36692" lon="0.09609">
        <ele>856</ele>
        <time>2015-09-22T10:46:10Z</time>
      </trkpt>
      <trkpt lat="42.3669" lon="0.09606">
        <ele>856.2</ele>
        <time>2015-09-22T10:46:11Z</time>
      </trkpt>
      <trkpt lat="42.36688" lon="0.09603">
        <ele>856.3</ele>
        <time>2015-09-22T10:46:12Z</time>
      </trkpt>
      <trkpt lat="42.36687" lon="0.09599">
        <ele>856.5</ele>
        <time>2015-09-22T10:46:13Z</time>
      </trkpt>
      <trkpt lat="42.36685" lon="0.09596">
        <ele>856.6</ele>
        <time>2015-09-22T10:46:14Z</time>
      </trkpt>
      <trkpt lat="42.36684" lon="0.09593">
        <ele>856.8</ele>
        <time>2015-09-22T10:46:15Z</time>
      </trkpt>
      <trkpt lat="42.36683" lon="0.09589">
        <ele>856.9</ele>
        <time>2015-09-22T10:46:16Z</time>
      </trkpt>
      <trkpt lat="42.36682" lon="0.09586">
        <ele>857.1</ele>
        <time>2015-09-22T10:46:17Z</time>
      </trkpt>
      <trkpt lat="42.3668" lon="0.09579">
        <ele>857.4</ele>
        <time>2015-09-22T10:46:19Z</time>
      </trkpt>
      <trkpt lat="42.36679" lon="0.09575">
        <ele>857.5</ele>
        <time>2015-09-22T10:46:20Z</time>
      </trkpt>
      <trkpt lat="42.36678" lon="0.09568">
        <ele>857.8</ele>
        <time>2015-09-22T10:46:22Z</time>
      </trkpt>
      <trkpt lat="42.36677" lon="0.09564">
        <ele>857.9</ele>
        <time>2015-09-22T10:46:23Z</time>
      </trkpt>
      <trkpt lat="42.36677" lon="0.09561">
        <ele>858.1</ele>
        <time>2015-09-22T10:46:24Z</time>
      </trkpt>
      <trkpt lat="42.36676" lon="0.09557">
        <ele>858.2</ele>
        <time>2015-09-22T10:46:25Z</time>
      </trkpt>
      <trkpt lat="42.36676" lon="0.09553">
        <ele>858.4</ele>
        <time>2015-09-22T10:46:26Z</time>
      </trkpt>
      <trkpt lat="42.36676" lon="0.09549">
        <ele>858.5</ele>
        <time>2015-09-22T10:46:27Z</time>
      </trkpt>
      <trkpt lat="42.36675" lon="0.09545">
        <ele>858.7</ele>
        <time>2015-09-22T10:46:28Z</time>
      </trkpt>
      <trkpt lat="42.36675" lon="0.09541">
        <ele>858.8</ele>
        <time>2015-09-22T10:46:29Z</time>
      </trkpt>
      <trkpt lat="42.36675" lon="0.09537">
        <ele>858.8</ele>
        <time>2015-09-22T10:46:30Z</time>
      </trkpt>
      <trkpt lat="42.36674" lon="0.09533">
        <ele>858.9</ele>
        <time>2015-09-22T10:46:31Z</time>
      </trkpt>
      <trkpt lat="42.36674" lon="0.09529">
        <ele>858.9</ele>
        <time>2015-09-22T10:46:32Z</time>
      </trkpt>
      <trkpt lat="42.36673" lon="0.09525">
        <ele>858.9</ele>
        <time>2015-09-22T10:46:33Z</time>
      </trkpt>
      <trkpt lat="42.36673" lon="0.09521">
        <ele>858.9</ele>
        <time>2015-09-22T10:46:34Z</time>
      </trkpt>
      <trkpt lat="42.36673" lon="0.09517">
        <ele>859</ele>
        <time>2015-09-22T10:46:35Z</time>
      </trkpt>
      <trkpt lat="42.36673" lon="0.09513">
        <ele>859</ele>
        <time>2015-09-22T10:46:36Z</time>
      </trkpt>
      <trkpt lat="42.36673" lon="0.0951">
        <ele>859</ele>
        <time>2015-09-22T10:46:37Z</time>
      </trkpt>
      <trkpt lat="42.36672" lon="0.09506">
        <ele>859.1</ele>
        <time>2015-09-22T10:46:38Z</time>
      </trkpt>
      <trkpt lat="42.36672" lon="0.09502">
        <ele>859.1</ele>
        <time>2015-09-22T10:46:39Z</time>
      </trkpt>
      <trkpt lat="42.36672" lon="0.09498">
        <ele>859.2</ele>
        <time>2015-09-22T10:46:40Z</time>
      </trkpt>
      <trkpt lat="42.36673" lon="0.09494">
        <ele>859.2</ele>
        <time>2015-09-22T10:46:41Z</time>
      </trkpt>
      <trkpt lat="42.36673" lon="0.0949">
        <ele>859.2</ele>
        <time>2015-09-22T10:46:42Z</time>
      </trkpt>
      <trkpt lat="42.36673" lon="0.09486">
        <ele>859.3</ele>
        <time>2015-09-22T10:46:43Z</time>
      </trkpt>
      <trkpt lat="42.36674" lon="0.09482">
        <ele>859.3</ele>
        <time>2015-09-22T10:46:44Z</time>
      </trkpt>
      <trkpt lat="42.36674" lon="0.09479">
        <ele>859.4</ele>
        <time>2015-09-22T10:46:45Z</time>
      </trkpt>
      <trkpt lat="42.36675" lon="0.09472">
        <ele>859.5</ele>
        <time>2015-09-22T10:46:47Z</time>
      </trkpt>
      <trkpt lat="42.36676" lon="0.09468">
        <ele>859.5</ele>
        <time>2015-09-22T10:46:48Z</time>
      </trkpt>
      <trkpt lat="42.36676" lon="0.09465">
        <ele>859.6</ele>
        <time>2015-09-22T10:46:49Z</time>
      </trkpt>
      <trkpt lat="42.36677" lon="0.09461">
        <ele>859.6</ele>
        <time>2015-09-22T10:46:50Z</time>
      </trkpt>
      <trkpt lat="42.36677" lon="0.09457">
        <ele>859.7</ele>
        <time>2015-09-22T10:46:51Z</time>
      </trkpt>
      <trkpt lat="42.36678" lon="0.09453">
        <ele>859.8</ele>
        <time>2015-09-22T10:46:52Z</time>
      </trkpt>
      <trkpt lat="42.36678" lon="0.09449">
        <ele>860</ele>
        <time>2015-09-22T10:46:53Z</time>
      </trkpt>
      <trkpt lat="42.36679" lon="0.09444">
        <ele>860.1</ele>
        <time>2015-09-22T10:46:54Z</time>
      </trkpt>
      <trkpt lat="42.3668" lon="0.0944">
        <ele>860.2</ele>
        <time>2015-09-22T10:46:55Z</time>
      </trkpt>
      <trkpt lat="42.36681" lon="0.09436">
        <ele>860.4</ele>
        <time>2015-09-22T10:46:56Z</time>
      </trkpt>
      <trkpt lat="42.36682" lon="0.09432">
        <ele>860.5</ele>
        <time>2015-09-22T10:46:57Z</time>
      </trkpt>
      <trkpt lat="42.36682" lon="0.09428">
        <ele>860.6</ele>
        <time>2015-09-22T10:46:58Z</time>
      </trkpt>
      <trkpt lat="42.36683" lon="0.09424">
        <ele>860.8</ele>
        <time>2015-09-22T10:46:59Z</time>
      </trkpt>
      <trkpt lat="42.36684" lon="0.0942">
        <ele>860.9</ele>
        <time>2015-09-22T10:47:00Z</time>
      </trkpt>
      <trkpt lat="42.36685" lon="0.09415">
        <ele>861</ele>
        <time>2015-09-22T10:47:01Z</time>
      </trkpt>
      <trkpt lat="42.36686" lon="0.09411">
        <ele>861.2</ele>
        <time>2015-09-22T10:47:02Z</time>
      </trkpt>
      <trkpt lat="42.36686" lon="0.09406">
        <ele>861.3</ele>
        <time>2015-09-22T10:47:03Z</time>
      </trkpt>
      <trkpt lat="42.36687" lon="0.09402">
        <ele>861.4</ele>
        <time>2015-09-22T10:47:04Z</time>
      </trkpt>
      <trkpt lat="42.36687" lon="0.09397">
        <ele>861.6</ele>
        <time>2015-09-22T10:47:05Z</time>
      </trkpt>
      <trkpt lat="42.36688" lon="0.09393">
        <ele>861.7</ele>
        <time>2015-09-22T10:47:06Z</time>
      </trkpt>
      <trkpt lat="42.36689" lon="0.09389">
        <ele>861.8</ele>
        <time>2015-09-22T10:47:07Z</time>
      </trkpt>
      <trkpt lat="42.36689" lon="0.09385">
        <ele>861.9</ele>
        <time>2015-09-22T10:47:08Z</time>
      </trkpt>
      <trkpt lat="42.3669" lon="0.09381">
        <ele>862.1</ele>
        <time>2015-09-22T10:47:09Z</time>
      </trkpt>
      <trkpt lat="42.3669" lon="0.09376">
        <ele>862.2</ele>
        <time>2015-09-22T10:47:10Z</time>
      </trkpt>
      <trkpt lat="42.36691" lon="0.09372">
        <ele>862.3</ele>
        <time>2015-09-22T10:47:11Z</time>
      </trkpt>
      <trkpt lat="42.36691" lon="0.09368">
        <ele>862.4</ele>
        <time>2015-09-22T10:47:12Z</time>
      </trkpt>
      <trkpt lat="42.36691" lon="0.09364">
        <ele>862.6</ele>
        <time>2015-09-22T10:47:13Z</time>
      </trkpt>
      <trkpt lat="42.36691" lon="0.0936">
        <ele>862.7</ele>
        <time>2015-09-22T10:47:14Z</time>
      </trkpt>
      <trkpt lat="42.36691" lon="0.09356">
        <ele>862.8</ele>
        <time>2015-09-22T10:47:15Z</time>
      </trkpt>
      <trkpt lat="42.36691" lon="0.09352">
        <ele>863</ele>
        <time>2015-09-22T10:47:16Z</time>
      </trkpt>
      <trkpt lat="42.3669" lon="0.09346">
        <ele>863.2</ele>
        <time>2015-09-22T10:47:18Z</time>
      </trkpt>
      <trkpt lat="42.36689" lon="0.09339">
        <ele>863.4</ele>
        <time>2015-09-22T10:47:20Z</time>
      </trkpt>
      <trkpt lat="42.36689" lon="0.09335">
        <ele>863.6</ele>
        <time>2015-09-22T10:47:21Z</time>
      </trkpt>
      <trkpt lat="42.36689" lon="0.09331">
        <ele>863.7</ele>
        <time>2015-09-22T10:47:22Z</time>
      </trkpt>
      <trkpt lat="42.36689" lon="0.09327">
        <ele>863.8</ele>
        <time>2015-09-22T10:47:23Z</time>
      </trkpt>
      <trkpt lat="42.36689" lon="0.09323">
        <ele>864</ele>
        <time>2015-09-22T10:47:24Z</time>
      </trkpt>
      <trkpt lat="42.36689" lon="0.09319">
        <ele>864.1</ele>
        <time>2015-09-22T10:47:25Z</time>
      </trkpt>
      <trkpt lat="42.36689" lon="0.09315">
        <ele>864.2</ele>
        <time>2015-09-22T10:47:26Z</time>
      </trkpt>
      <trkpt lat="42.36689" lon="0.09309">
        <ele>864.4</ele>
        <time>2015-09-22T10:47:27Z</time>
      </trkpt>
      <trkpt lat="42.36689" lon="0.09305">
        <ele>864.6</ele>
        <time>2015-09-22T10:47:28Z</time>
      </trkpt>
      <trkpt lat="42.36689" lon="0.09301">
        <ele>864.7</ele>
        <time>2015-09-22T10:47:29Z</time>
      </trkpt>
      <trkpt lat="42.36689" lon="0.09297">
        <ele>864.8</ele>
        <time>2015-09-22T10:47:30Z</time>
      </trkpt>
      <trkpt lat="42.36689" lon="0.09293">
        <ele>865</ele>
        <time>2015-09-22T10:47:31Z</time>
      </trkpt>
      <trkpt lat="42.36689" lon="0.09289">
        <ele>865.2</ele>
        <time>2015-09-22T10:47:32Z</time>
      </trkpt>
      <trkpt lat="42.36689" lon="0.09285">
        <ele>865.5</ele>
        <time>2015-09-22T10:47:33Z</time>
      </trkpt>
      <trkpt lat="42.36689" lon="0.0928">
        <ele>865.9</ele>
        <time>2015-09-22T10:47:34Z</time>
      </trkpt>
      <trkpt lat="42.3669" lon="0.09276">
        <ele>866.2</ele>
        <time>2015-09-22T10:47:35Z</time>
      </trkpt>
      <trkpt lat="42.3669" lon="0.09271">
        <ele>866.5</ele>
        <time>2015-09-22T10:47:36Z</time>
      </trkpt>
      <trkpt lat="42.3669" lon="0.09267">
        <ele>866.9</ele>
        <time>2015-09-22T10:47:37Z</time>
      </trkpt>
      <trkpt lat="42.36691" lon="0.09263">
        <ele>867.2</ele>
        <time>2015-09-22T10:47:38Z</time>
      </trkpt>
      <trkpt lat="42.36692" lon="0.09258">
        <ele>867.6</ele>
        <time>2015-09-22T10:47:39Z</time>
      </trkpt>
      <trkpt lat="42.36692" lon="0.09254">
        <ele>867.9</ele>
        <time>2015-09-22T10:47:40Z</time>
      </trkpt>
      <trkpt lat="42.36693" lon="0.09248">
        <ele>868.4</ele>
        <time>2015-09-22T10:47:42Z</time>
      </trkpt>
      <trkpt lat="42.36694" lon="0.09241">
        <ele>868.9</ele>
        <time>2015-09-22T10:47:44Z</time>
      </trkpt>
      <trkpt lat="42.36694" lon="0.09237">
        <ele>869.2</ele>
        <time>2015-09-22T10:47:45Z</time>
      </trkpt>
      <trkpt lat="42.36695" lon="0.09233">
        <ele>869.6</ele>
        <time>2015-09-22T10:47:46Z</time>
      </trkpt>
      <trkpt lat="42.36695" lon="0.09229">
        <ele>869.9</ele>
        <time>2015-09-22T10:47:47Z</time>
      </trkpt>
      <trkpt lat="42.36695" lon="0.09225">
        <ele>870.2</ele>
        <time>2015-09-22T10:47:48Z</time>
      </trkpt>
      <trkpt lat="42.36695" lon="0.09221">
        <ele>870.5</ele>
        <time>2015-09-22T10:47:49Z</time>
      </trkpt>
      <trkpt lat="42.36695" lon="0.09217">
        <ele>870.9</ele>
        <time>2015-09-22T10:47:50Z</time>
      </trkpt>
      <trkpt lat="42.36695" lon="0.09213">
        <ele>871.2</ele>
        <time>2015-09-22T10:47:51Z</time>
      </trkpt>
      <trkpt lat="42.36695" lon="0.09209">
        <ele>871.5</ele>
        <time>2015-09-22T10:47:52Z</time>
      </trkpt>
      <trkpt lat="42.36695" lon="0.09205">
        <ele>871.9</ele>
        <time>2015-09-22T10:47:53Z</time>
      </trkpt>
      <trkpt lat="42.36695" lon="0.09199">
        <ele>872.6</ele>
        <time>2015-09-22T10:47:55Z</time>
      </trkpt>
      <trkpt lat="42.36695" lon="0.09193">
        <ele>873.4</ele>
        <time>2015-09-22T10:47:57Z</time>
      </trkpt>
      <trkpt lat="42.36694" lon="0.09186">
        <ele>874.1</ele>
        <time>2015-09-22T10:47:59Z</time>
      </trkpt>
      <trkpt lat="42.36693" lon="0.09181">
        <ele>874.7</ele>
        <time>2015-09-22T10:48:01Z</time>
      </trkpt>
      <trkpt lat="42.3669" lon="0.09176">
        <ele>875.1</ele>
        <time>2015-09-22T10:48:03Z</time>
      </trkpt>
      <trkpt lat="42.36685" lon="0.09172">
        <ele>875.3</ele>
        <time>2015-09-22T10:48:05Z</time>
      </trkpt>
      <trkpt lat="42.36683" lon="0.0917">
        <ele>875.3</ele>
        <time>2015-09-22T10:48:06Z</time>
      </trkpt>
      <trkpt lat="42.3668" lon="0.09168">
        <ele>875.4</ele>
        <time>2015-09-22T10:48:07Z</time>
      </trkpt>
      <trkpt lat="42.36678" lon="0.09166">
        <ele>875.4</ele>
        <time>2015-09-22T10:48:08Z</time>
      </trkpt>
      <trkpt lat="42.36674" lon="0.09163">
        <ele>875.4</ele>
        <time>2015-09-22T10:48:10Z</time>
      </trkpt>
      <trkpt lat="42.3667" lon="0.0916">
        <ele>875.4</ele>
        <time>2015-09-22T10:48:12Z</time>
      </trkpt>
      <trkpt lat="42.36666" lon="0.09159">
        <ele>875.2</ele>
        <time>2015-09-22T10:48:14Z</time>
      </trkpt>
      <trkpt lat="42.36662" lon="0.09158">
        <ele>874.9</ele>
        <time>2015-09-22T10:48:16Z</time>
      </trkpt>
      <trkpt lat="42.36657" lon="0.09158">
        <ele>874.6</ele>
        <time>2015-09-22T10:48:18Z</time>
      </trkpt>
      <trkpt lat="42.36654" lon="0.09157">
        <ele>874.4</ele>
        <time>2015-09-22T10:48:19Z</time>
      </trkpt>
      <trkpt lat="42.36651" lon="0.09156">
        <ele>874.3</ele>
        <time>2015-09-22T10:48:20Z</time>
      </trkpt>
      <trkpt lat="42.36649" lon="0.09155">
        <ele>874.1</ele>
        <time>2015-09-22T10:48:21Z</time>
      </trkpt>
      <trkpt lat="42.36646" lon="0.09154">
        <ele>874</ele>
        <time>2015-09-22T10:48:22Z</time>
      </trkpt>
      <trkpt lat="42.36643" lon="0.09153">
        <ele>873.8</ele>
        <time>2015-09-22T10:48:23Z</time>
      </trkpt>
      <trkpt lat="42.3664" lon="0.09152">
        <ele>873.7</ele>
        <time>2015-09-22T10:48:24Z</time>
      </trkpt>
      <trkpt lat="42.36636" lon="0.0915">
        <ele>873.5</ele>
        <time>2015-09-22T10:48:25Z</time>
      </trkpt>
      <trkpt lat="42.36633" lon="0.09148">
        <ele>873.3</ele>
        <time>2015-09-22T10:48:26Z</time>
      </trkpt>
      <trkpt lat="42.36629" lon="0.09147">
        <ele>873.1</ele>
        <time>2015-09-22T10:48:27Z</time>
      </trkpt>
      <trkpt lat="42.36626" lon="0.09145">
        <ele>872.9</ele>
        <time>2015-09-22T10:48:28Z</time>
      </trkpt>
      <trkpt lat="42.36622" lon="0.09143">
        <ele>872.7</ele>
        <time>2015-09-22T10:48:29Z</time>
      </trkpt>
      <trkpt lat="42.36619" lon="0.09141">
        <ele>872.4</ele>
        <time>2015-09-22T10:48:30Z</time>
      </trkpt>
      <trkpt lat="42.36615" lon="0.0914">
        <ele>872.2</ele>
        <time>2015-09-22T10:48:31Z</time>
      </trkpt>
      <trkpt lat="42.36612" lon="0.09138">
        <ele>871.9</ele>
        <time>2015-09-22T10:48:32Z</time>
      </trkpt>
      <trkpt lat="42.36609" lon="0.09137">
        <ele>871.6</ele>
        <time>2015-09-22T10:48:33Z</time>
      </trkpt>
      <trkpt lat="42.36605" lon="0.09136">
        <ele>871.3</ele>
        <time>2015-09-22T10:48:34Z</time>
      </trkpt>
      <trkpt lat="42.36602" lon="0.09136">
        <ele>871</ele>
        <time>2015-09-22T10:48:35Z</time>
      </trkpt>
      <trkpt lat="42.36598" lon="0.09135">
        <ele>870.7</ele>
        <time>2015-09-22T10:48:36Z</time>
      </trkpt>
      <trkpt lat="42.36595" lon="0.09135">
        <ele>870.3</ele>
        <time>2015-09-22T10:48:37Z</time>
      </trkpt>
      <trkpt lat="42.36591" lon="0.09134">
        <ele>870</ele>
        <time>2015-09-22T10:48:38Z</time>
      </trkpt>
      <trkpt lat="42.36588" lon="0.09134">
        <ele>869.7</ele>
        <time>2015-09-22T10:48:39Z</time>
      </trkpt>
      <trkpt lat="42.36584" lon="0.09133">
        <ele>869.4</ele>
        <time>2015-09-22T10:48:40Z</time>
      </trkpt>
      <trkpt lat="42.36581" lon="0.09131">
        <ele>869.1</ele>
        <time>2015-09-22T10:48:41Z</time>
      </trkpt>
      <trkpt lat="42.36578" lon="0.09129">
        <ele>868.8</ele>
        <time>2015-09-22T10:48:42Z</time>
      </trkpt>
      <trkpt lat="42.36575" lon="0.09126">
        <ele>868.6</ele>
        <time>2015-09-22T10:48:43Z</time>
      </trkpt>
      <trkpt lat="42.36573" lon="0.09123">
        <ele>868.3</ele>
        <time>2015-09-22T10:48:44Z</time>
      </trkpt>
      <trkpt lat="42.36569" lon="0.0912">
        <ele>867.8</ele>
        <time>2015-09-22T10:48:46Z</time>
      </trkpt>
      <trkpt lat="42.36566" lon="0.09116">
        <ele>867.2</ele>
        <time>2015-09-22T10:48:48Z</time>
      </trkpt>
      <trkpt lat="42.36564" lon="0.09113">
        <ele>866.9</ele>
        <time>2015-09-22T10:48:50Z</time>
      </trkpt>
      <trkpt lat="42.36562" lon="0.09111">
        <ele>866.5</ele>
        <time>2015-09-22T10:48:54Z</time>
      </trkpt>
      <trkpt lat="42.36557" lon="0.09109">
        <ele>865.9</ele>
        <time>2015-09-22T10:48:57Z</time>
      </trkpt>
      <trkpt lat="42.36553" lon="0.0911">
        <ele>865.6</ele>
        <time>2015-09-22T10:48:58Z</time>
      </trkpt>
      <trkpt lat="42.36549" lon="0.09111">
        <ele>865.2</ele>
        <time>2015-09-22T10:48:59Z</time>
      </trkpt>
      <trkpt lat="42.36545" lon="0.09112">
        <ele>864.8</ele>
        <time>2015-09-22T10:49:00Z</time>
      </trkpt>
      <trkpt lat="42.3654" lon="0.09113">
        <ele>864.3</ele>
        <time>2015-09-22T10:49:01Z</time>
      </trkpt>
      <trkpt lat="42.36535" lon="0.09115">
        <ele>863.9</ele>
        <time>2015-09-22T10:49:02Z</time>
      </trkpt>
      <trkpt lat="42.36531" lon="0.09117">
        <ele>863.5</ele>
        <time>2015-09-22T10:49:03Z</time>
      </trkpt>
      <trkpt lat="42.36527" lon="0.0912">
        <ele>863.3</ele>
        <time>2015-09-22T10:49:04Z</time>
      </trkpt>
      <trkpt lat="42.36523" lon="0.09125">
        <ele>863.2</ele>
        <time>2015-09-22T10:49:05Z</time>
      </trkpt>
      <trkpt lat="42.36521" lon="0.0913">
        <ele>863</ele>
        <time>2015-09-22T10:49:06Z</time>
      </trkpt>
      <trkpt lat="42.36518" lon="0.09135">
        <ele>862.8</ele>
        <time>2015-09-22T10:49:07Z</time>
      </trkpt>
      <trkpt lat="42.36515" lon="0.09142">
        <ele>862.6</ele>
        <time>2015-09-22T10:49:08Z</time>
      </trkpt>
      <trkpt lat="42.36513" lon="0.09148">
        <ele>862.5</ele>
        <time>2015-09-22T10:49:09Z</time>
      </trkpt>
      <trkpt lat="42.3651" lon="0.09154">
        <ele>862.3</ele>
        <time>2015-09-22T10:49:10Z</time>
      </trkpt>
      <trkpt lat="42.36507" lon="0.0916">
        <ele>862.2</ele>
        <time>2015-09-22T10:49:11Z</time>
      </trkpt>
      <trkpt lat="42.36504" lon="0.09167">
        <ele>862.1</ele>
        <time>2015-09-22T10:49:12Z</time>
      </trkpt>
      <trkpt lat="42.36501" lon="0.09174">
        <ele>861.9</ele>
        <time>2015-09-22T10:49:13Z</time>
      </trkpt>
      <trkpt lat="42.36498" lon="0.0918">
        <ele>861.8</ele>
        <time>2015-09-22T10:49:14Z</time>
      </trkpt>
      <trkpt lat="42.36494" lon="0.09186">
        <ele>861.7</ele>
        <time>2015-09-22T10:49:15Z</time>
      </trkpt>
      <trkpt lat="42.36491" lon="0.09192">
        <ele>861.6</ele>
        <time>2015-09-22T10:49:16Z</time>
      </trkpt>
      <trkpt lat="42.36488" lon="0.09198">
        <ele>861.5</ele>
        <time>2015-09-22T10:49:17Z</time>
      </trkpt>
      <trkpt lat="42.36485" lon="0.09203">
        <ele>861.5</ele>
        <time>2015-09-22T10:49:18Z</time>
      </trkpt>
      <trkpt lat="42.36481" lon="0.09208">
        <ele>861.3</ele>
        <time>2015-09-22T10:49:19Z</time>
      </trkpt>
      <trkpt lat="42.36476" lon="0.09212">
        <ele>861.1</ele>
        <time>2015-09-22T10:49:20Z</time>
      </trkpt>
      <trkpt lat="42.36471" lon="0.09216">
        <ele>860.9</ele>
        <time>2015-09-22T10:49:21Z</time>
      </trkpt>
      <trkpt lat="42.36466" lon="0.09219">
        <ele>860.6</ele>
        <time>2015-09-22T10:49:22Z</time>
      </trkpt>
      <trkpt lat="42.3646" lon="0.0922">
        <ele>860.4</ele>
        <time>2015-09-22T10:49:23Z</time>
      </trkpt>
      <trkpt lat="42.36454" lon="0.09222">
        <ele>860.3</ele>
        <time>2015-09-22T10:49:24Z</time>
      </trkpt>
      <trkpt lat="42.36448" lon="0.09223">
        <ele>860.4</ele>
        <time>2015-09-22T10:49:25Z</time>
      </trkpt>
      <trkpt lat="42.36442" lon="0.09223">
        <ele>860.4</ele>
        <time>2015-09-22T10:49:26Z</time>
      </trkpt>
      <trkpt lat="42.36436" lon="0.09223">
        <ele>860.4</ele>
        <time>2015-09-22T10:49:27Z</time>
      </trkpt>
      <trkpt lat="42.3643" lon="0.09222">
        <ele>860.4</ele>
        <time>2015-09-22T10:49:28Z</time>
      </trkpt>
      <trkpt lat="42.36424" lon="0.09222">
        <ele>860.5</ele>
        <time>2015-09-22T10:49:29Z</time>
      </trkpt>
      <trkpt lat="42.36417" lon="0.09223">
        <ele>860.5</ele>
        <time>2015-09-22T10:49:30Z</time>
      </trkpt>
      <trkpt lat="42.36411" lon="0.09224">
        <ele>860.6</ele>
        <time>2015-09-22T10:49:31Z</time>
      </trkpt>
      <trkpt lat="42.36404" lon="0.09224">
        <ele>860.6</ele>
        <time>2015-09-22T10:49:32Z</time>
      </trkpt>
      <trkpt lat="42.36397" lon="0.09226">
        <ele>860.7</ele>
        <time>2015-09-22T10:49:33Z</time>
      </trkpt>
      <trkpt lat="42.3639" lon="0.09228">
        <ele>860.8</ele>
        <time>2015-09-22T10:49:34Z</time>
      </trkpt>
      <trkpt lat="42.36384" lon="0.0923">
        <ele>861</ele>
        <time>2015-09-22T10:49:35Z</time>
      </trkpt>
      <trkpt lat="42.36377" lon="0.09231">
        <ele>861.1</ele>
        <time>2015-09-22T10:49:36Z</time>
      </trkpt>
      <trkpt lat="42.3637" lon="0.09233">
        <ele>861.2</ele>
        <time>2015-09-22T10:49:37Z</time>
      </trkpt>
      <trkpt lat="42.36363" lon="0.09233">
        <ele>861.2</ele>
        <time>2015-09-22T10:49:38Z</time>
      </trkpt>
      <trkpt lat="42.36357" lon="0.09233">
        <ele>861.2</ele>
        <time>2015-09-22T10:49:39Z</time>
      </trkpt>
      <trkpt lat="42.3635" lon="0.09232">
        <ele>861.2</ele>
        <time>2015-09-22T10:49:40Z</time>
      </trkpt>
      <trkpt lat="42.36344" lon="0.0923">
        <ele>861.1</ele>
        <time>2015-09-22T10:49:41Z</time>
      </trkpt>
      <trkpt lat="42.36338" lon="0.09228">
        <ele>861.1</ele>
        <time>2015-09-22T10:49:42Z</time>
      </trkpt>
      <trkpt lat="42.36332" lon="0.09226">
        <ele>861</ele>
        <time>2015-09-22T10:49:43Z</time>
      </trkpt>
      <trkpt lat="42.36327" lon="0.09224">
        <ele>861</ele>
        <time>2015-09-22T10:49:44Z</time>
      </trkpt>
      <trkpt lat="42.36321" lon="0.09222">
        <ele>861</ele>
        <time>2015-09-22T10:49:45Z</time>
      </trkpt>
      <trkpt lat="42.36316" lon="0.0922">
        <ele>861</ele>
        <time>2015-09-22T10:49:46Z</time>
      </trkpt>
      <trkpt lat="42.36311" lon="0.09219">
        <ele>861</ele>
        <time>2015-09-22T10:49:47Z</time>
      </trkpt>
      <trkpt lat="42.36306" lon="0.09217">
        <ele>861</ele>
        <time>2015-09-22T10:49:48Z</time>
      </trkpt>
      <trkpt lat="42.36301" lon="0.09215">
        <ele>861</ele>
        <time>2015-09-22T10:49:49Z</time>
      </trkpt>
      <trkpt lat="42.36298" lon="0.09212">
        <ele>861</ele>
        <time>2015-09-22T10:49:50Z</time>
      </trkpt>
      <trkpt lat="42.36293" lon="0.0921">
        <ele>861</ele>
        <time>2015-09-22T10:49:51Z</time>
      </trkpt>
      <trkpt lat="42.36289" lon="0.09207">
        <ele>860.9</ele>
        <time>2015-09-22T10:49:52Z</time>
      </trkpt>
      <trkpt lat="42.36285" lon="0.09204">
        <ele>860.6</ele>
        <time>2015-09-22T10:49:53Z</time>
      </trkpt>
      <trkpt lat="42.36281" lon="0.092">
        <ele>860.4</ele>
        <time>2015-09-22T10:49:54Z</time>
      </trkpt>
      <trkpt lat="42.36277" lon="0.09197">
        <ele>860.1</ele>
        <time>2015-09-22T10:49:55Z</time>
      </trkpt>
      <trkpt lat="42.36274" lon="0.09194">
        <ele>859.9</ele>
        <time>2015-09-22T10:49:56Z</time>
      </trkpt>
      <trkpt lat="42.36271" lon="0.09191">
        <ele>859.8</ele>
        <time>2015-09-22T10:49:57Z</time>
      </trkpt>
      <trkpt lat="42.36268" lon="0.09186">
        <ele>859.6</ele>
        <time>2015-09-22T10:49:58Z</time>
      </trkpt>
      <trkpt lat="42.36264" lon="0.09182">
        <ele>859.4</ele>
        <time>2015-09-22T10:49:59Z</time>
      </trkpt>
      <trkpt lat="42.36261" lon="0.09178">
        <ele>859.2</ele>
        <time>2015-09-22T10:50:00Z</time>
      </trkpt>
      <trkpt lat="42.36258" lon="0.09173">
        <ele>859</ele>
        <time>2015-09-22T10:50:01Z</time>
      </trkpt>
      <trkpt lat="42.36255" lon="0.09168">
        <ele>858.9</ele>
        <time>2015-09-22T10:50:02Z</time>
      </trkpt>
      <trkpt lat="42.36252" lon="0.09163">
        <ele>858.7</ele>
        <time>2015-09-22T10:50:03Z</time>
      </trkpt>
      <trkpt lat="42.36249" lon="0.09158">
        <ele>858.6</ele>
        <time>2015-09-22T10:50:04Z</time>
      </trkpt>
      <trkpt lat="42.36246" lon="0.09153">
        <ele>858.5</ele>
        <time>2015-09-22T10:50:05Z</time>
      </trkpt>
      <trkpt lat="42.36243" lon="0.09148">
        <ele>858.3</ele>
        <time>2015-09-22T10:50:06Z</time>
      </trkpt>
      <trkpt lat="42.3624" lon="0.09144">
        <ele>858.3</ele>
        <time>2015-09-22T10:50:07Z</time>
      </trkpt>
      <trkpt lat="42.36237" lon="0.09139">
        <ele>858.2</ele>
        <time>2015-09-22T10:50:08Z</time>
      </trkpt>
      <trkpt lat="42.36233" lon="0.09135">
        <ele>858.1</ele>
        <time>2015-09-22T10:50:09Z</time>
      </trkpt>
      <trkpt lat="42.3623" lon="0.09129">
        <ele>858</ele>
        <time>2015-09-22T10:50:10Z</time>
      </trkpt>
      <trkpt lat="42.36226" lon="0.09124">
        <ele>858</ele>
        <time>2015-09-22T10:50:11Z</time>
      </trkpt>
      <trkpt lat="42.36222" lon="0.09118">
        <ele>857.8</ele>
        <time>2015-09-22T10:50:12Z</time>
      </trkpt>
      <trkpt lat="42.36217" lon="0.09114">
        <ele>857.7</ele>
        <time>2015-09-22T10:50:13Z</time>
      </trkpt>
      <trkpt lat="42.36213" lon="0.09109">
        <ele>857.6</ele>
        <time>2015-09-22T10:50:14Z</time>
      </trkpt>
      <trkpt lat="42.36209" lon="0.09103">
        <ele>857.5</ele>
        <time>2015-09-22T10:50:15Z</time>
      </trkpt>
      <trkpt lat="42.36205" lon="0.09098">
        <ele>857.3</ele>
        <time>2015-09-22T10:50:16Z</time>
      </trkpt>
      <trkpt lat="42.36201" lon="0.09093">
        <ele>857.1</ele>
        <time>2015-09-22T10:50:17Z</time>
      </trkpt>
      <trkpt lat="42.36197" lon="0.09089">
        <ele>857</ele>
        <time>2015-09-22T10:50:18Z</time>
      </trkpt>
      <trkpt lat="42.36192" lon="0.09085">
        <ele>856.8</ele>
        <time>2015-09-22T10:50:19Z</time>
      </trkpt>
      <trkpt lat="42.36187" lon="0.09083">
        <ele>856.7</ele>
        <time>2015-09-22T10:50:20Z</time>
      </trkpt>
      <trkpt lat="42.36181" lon="0.09082">
        <ele>856.6</ele>
        <time>2015-09-22T10:50:21Z</time>
      </trkpt>
      <trkpt lat="42.36176" lon="0.09081">
        <ele>856.6</ele>
        <time>2015-09-22T10:50:22Z</time>
      </trkpt>
      <trkpt lat="42.36169" lon="0.0908">
        <ele>856.5</ele>
        <time>2015-09-22T10:50:23Z</time>
      </trkpt>
      <trkpt lat="42.36163" lon="0.09079">
        <ele>856.4</ele>
        <time>2015-09-22T10:50:24Z</time>
      </trkpt>
      <trkpt lat="42.36156" lon="0.09078">
        <ele>856.3</ele>
        <time>2015-09-22T10:50:25Z</time>
      </trkpt>
      <trkpt lat="42.3615" lon="0.09078">
        <ele>856.3</ele>
        <time>2015-09-22T10:50:26Z</time>
      </trkpt>
      <trkpt lat="42.36143" lon="0.09078">
        <ele>856.2</ele>
        <time>2015-09-22T10:50:27Z</time>
      </trkpt>
      <trkpt lat="42.36137" lon="0.09079">
        <ele>856.1</ele>
        <time>2015-09-22T10:50:28Z</time>
      </trkpt>
      <trkpt lat="42.3613" lon="0.09078">
        <ele>856</ele>
        <time>2015-09-22T10:50:29Z</time>
      </trkpt>
      <trkpt lat="42.36123" lon="0.09079">
        <ele>855.9</ele>
        <time>2015-09-22T10:50:30Z</time>
      </trkpt>
      <trkpt lat="42.36116" lon="0.09079">
        <ele>855.7</ele>
        <time>2015-09-22T10:50:31Z</time>
      </trkpt>
      <trkpt lat="42.36109" lon="0.0908">
        <ele>855.4</ele>
        <time>2015-09-22T10:50:32Z</time>
      </trkpt>
      <trkpt lat="42.36102" lon="0.0908">
        <ele>855.2</ele>
        <time>2015-09-22T10:50:33Z</time>
      </trkpt>
      <trkpt lat="42.36094" lon="0.09081">
        <ele>854.9</ele>
        <time>2015-09-22T10:50:34Z</time>
      </trkpt>
      <trkpt lat="42.36087" lon="0.09081">
        <ele>854.6</ele>
        <time>2015-09-22T10:50:35Z</time>
      </trkpt>
      <trkpt lat="42.36079" lon="0.09081">
        <ele>854.4</ele>
        <time>2015-09-22T10:50:36Z</time>
      </trkpt>
      <trkpt lat="42.36071" lon="0.09082">
        <ele>854.1</ele>
        <time>2015-09-22T10:50:37Z</time>
      </trkpt>
      <trkpt lat="42.36064" lon="0.09082">
        <ele>853.8</ele>
        <time>2015-09-22T10:50:38Z</time>
      </trkpt>
      <trkpt lat="42.36056" lon="0.09081">
        <ele>853.5</ele>
        <time>2015-09-22T10:50:39Z</time>
      </trkpt>
      <trkpt lat="42.36049" lon="0.09082">
        <ele>853.3</ele>
        <time>2015-09-22T10:50:40Z</time>
      </trkpt>
      <trkpt lat="42.36041" lon="0.09082">
        <ele>853</ele>
        <time>2015-09-22T10:50:41Z</time>
      </trkpt>
      <trkpt lat="42.36034" lon="0.09082">
        <ele>852.9</ele>
        <time>2015-09-22T10:50:42Z</time>
      </trkpt>
      <trkpt lat="42.36027" lon="0.09082">
        <ele>852.7</ele>
        <time>2015-09-22T10:50:43Z</time>
      </trkpt>
      <trkpt lat="42.3602" lon="0.09082">
        <ele>852.6</ele>
        <time>2015-09-22T10:50:44Z</time>
      </trkpt>
      <trkpt lat="42.36013" lon="0.09082">
        <ele>852.5</ele>
        <time>2015-09-22T10:50:45Z</time>
      </trkpt>
      <trkpt lat="42.36007" lon="0.09081">
        <ele>852.4</ele>
        <time>2015-09-22T10:50:46Z</time>
      </trkpt>
      <trkpt lat="42.36" lon="0.09081">
        <ele>852.2</ele>
        <time>2015-09-22T10:50:47Z</time>
      </trkpt>
      <trkpt lat="42.35993" lon="0.09083">
        <ele>852.1</ele>
        <time>2015-09-22T10:50:48Z</time>
      </trkpt>
      <trkpt lat="42.35986" lon="0.09083">
        <ele>852</ele>
        <time>2015-09-22T10:50:49Z</time>
      </trkpt>
      <trkpt lat="42.3598" lon="0.09082">
        <ele>851.9</ele>
        <time>2015-09-22T10:50:50Z</time>
      </trkpt>
      <trkpt lat="42.35973" lon="0.09083">
        <ele>851.8</ele>
        <time>2015-09-22T10:50:51Z</time>
      </trkpt>
      <trkpt lat="42.35967" lon="0.09083">
        <ele>851.6</ele>
        <time>2015-09-22T10:50:52Z</time>
      </trkpt>
      <trkpt lat="42.3596" lon="0.09083">
        <ele>851.5</ele>
        <time>2015-09-22T10:50:53Z</time>
      </trkpt>
      <trkpt lat="42.35953" lon="0.09083">
        <ele>851.4</ele>
        <time>2015-09-22T10:50:54Z</time>
      </trkpt>
      <trkpt lat="42.35946" lon="0.09083">
        <ele>851.3</ele>
        <time>2015-09-22T10:50:55Z</time>
      </trkpt>
      <trkpt lat="42.3594" lon="0.09083">
        <ele>851.2</ele>
        <time>2015-09-22T10:50:56Z</time>
      </trkpt>
      <trkpt lat="42.35934" lon="0.09083">
        <ele>851.1</ele>
        <time>2015-09-22T10:50:57Z</time>
      </trkpt>
      <trkpt lat="42.35927" lon="0.09083">
        <ele>850.9</ele>
        <time>2015-09-22T10:50:58Z</time>
      </trkpt>
      <trkpt lat="42.35921" lon="0.09084">
        <ele>850.8</ele>
        <time>2015-09-22T10:50:59Z</time>
      </trkpt>
      <trkpt lat="42.35915" lon="0.09083">
        <ele>850.7</ele>
        <time>2015-09-22T10:51:00Z</time>
      </trkpt>
      <trkpt lat="42.35908" lon="0.09083">
        <ele>850.6</ele>
        <time>2015-09-22T10:51:01Z</time>
      </trkpt>
      <trkpt lat="42.35902" lon="0.09082">
        <ele>850.5</ele>
        <time>2015-09-22T10:51:02Z</time>
      </trkpt>
      <trkpt lat="42.35896" lon="0.09083">
        <ele>850.4</ele>
        <time>2015-09-22T10:51:03Z</time>
      </trkpt>
      <trkpt lat="42.35889" lon="0.09082">
        <ele>850.2</ele>
        <time>2015-09-22T10:51:04Z</time>
      </trkpt>
      <trkpt lat="42.35884" lon="0.09083">
        <ele>850.1</ele>
        <time>2015-09-22T10:51:05Z</time>
      </trkpt>
      <trkpt lat="42.35878" lon="0.09083">
        <ele>850</ele>
        <time>2015-09-22T10:51:06Z</time>
      </trkpt>
      <trkpt lat="42.35871" lon="0.09084">
        <ele>850</ele>
        <time>2015-09-22T10:51:07Z</time>
      </trkpt>
      <trkpt lat="42.35865" lon="0.09084">
        <ele>850</ele>
        <time>2015-09-22T10:51:08Z</time>
      </trkpt>
      <trkpt lat="42.3586" lon="0.09084">
        <ele>850</ele>
        <time>2015-09-22T10:51:09Z</time>
      </trkpt>
      <trkpt lat="42.35854" lon="0.09084">
        <ele>850</ele>
        <time>2015-09-22T10:51:10Z</time>
      </trkpt>
      <trkpt lat="42.35847" lon="0.09084">
        <ele>850</ele>
        <time>2015-09-22T10:51:11Z</time>
      </trkpt>
      <trkpt lat="42.35841" lon="0.09084">
        <ele>850</ele>
        <time>2015-09-22T10:51:12Z</time>
      </trkpt>
      <trkpt lat="42.35836" lon="0.09084">
        <ele>850</ele>
        <time>2015-09-22T10:51:13Z</time>
      </trkpt>
      <trkpt lat="42.3583" lon="0.09085">
        <ele>850</ele>
        <time>2015-09-22T10:51:14Z</time>
      </trkpt>
      <trkpt lat="42.35824" lon="0.09086">
        <ele>850.1</ele>
        <time>2015-09-22T10:51:15Z</time>
      </trkpt>
      <trkpt lat="42.35819" lon="0.09089">
        <ele>850.1</ele>
        <time>2015-09-22T10:51:16Z</time>
      </trkpt>
      <trkpt lat="42.35813" lon="0.09092">
        <ele>850.2</ele>
        <time>2015-09-22T10:51:17Z</time>
      </trkpt>
      <trkpt lat="42.35808" lon="0.09094">
        <ele>850.3</ele>
        <time>2015-09-22T10:51:18Z</time>
      </trkpt>
      <trkpt lat="42.35803" lon="0.09097">
        <ele>850.3</ele>
        <time>2015-09-22T10:51:19Z</time>
      </trkpt>
      <trkpt lat="42.35799" lon="0.091">
        <ele>850.4</ele>
        <time>2015-09-22T10:51:20Z</time>
      </trkpt>
      <trkpt lat="42.35794" lon="0.09104">
        <ele>850.5</ele>
        <time>2015-09-22T10:51:21Z</time>
      </trkpt>
      <trkpt lat="42.35789" lon="0.09108">
        <ele>850.6</ele>
        <time>2015-09-22T10:51:22Z</time>
      </trkpt>
      <trkpt lat="42.35784" lon="0.09113">
        <ele>850.7</ele>
        <time>2015-09-22T10:51:23Z</time>
      </trkpt>
      <trkpt lat="42.3578" lon="0.09118">
        <ele>850.8</ele>
        <time>2015-09-22T10:51:24Z</time>
      </trkpt>
      <trkpt lat="42.35775" lon="0.09123">
        <ele>850.9</ele>
        <time>2015-09-22T10:51:25Z</time>
      </trkpt>
      <trkpt lat="42.35769" lon="0.09126">
        <ele>851</ele>
        <time>2015-09-22T10:51:26Z</time>
      </trkpt>
      <trkpt lat="42.35763" lon="0.09129">
        <ele>851.1</ele>
        <time>2015-09-22T10:51:27Z</time>
      </trkpt>
      <trkpt lat="42.35757" lon="0.09131">
        <ele>851.1</ele>
        <time>2015-09-22T10:51:28Z</time>
      </trkpt>
      <trkpt lat="42.35751" lon="0.09133">
        <ele>851.2</ele>
        <time>2015-09-22T10:51:29Z</time>
      </trkpt>
      <trkpt lat="42.35745" lon="0.09134">
        <ele>851.2</ele>
        <time>2015-09-22T10:51:30Z</time>
      </trkpt>
      <trkpt lat="42.35739" lon="0.09136">
        <ele>851.3</ele>
        <time>2015-09-22T10:51:31Z</time>
      </trkpt>
      <trkpt lat="42.35733" lon="0.09138">
        <ele>851.4</ele>
        <time>2015-09-22T10:51:32Z</time>
      </trkpt>
      <trkpt lat="42.35727" lon="0.0914">
        <ele>851.5</ele>
        <time>2015-09-22T10:51:33Z</time>
      </trkpt>
      <trkpt lat="42.35721" lon="0.09141">
        <ele>851.5</ele>
        <time>2015-09-22T10:51:34Z</time>
      </trkpt>
      <trkpt lat="42.35715" lon="0.0914">
        <ele>851.5</ele>
        <time>2015-09-22T10:51:35Z</time>
      </trkpt>
      <trkpt lat="42.3571" lon="0.0914">
        <ele>851.5</ele>
        <time>2015-09-22T10:51:36Z</time>
      </trkpt>
      <trkpt lat="42.35704" lon="0.09138">
        <ele>851.6</ele>
        <time>2015-09-22T10:51:37Z</time>
      </trkpt>
      <trkpt lat="42.35699" lon="0.09137">
        <ele>851.7</ele>
        <time>2015-09-22T10:51:38Z</time>
      </trkpt>
      <trkpt lat="42.35694" lon="0.09136">
        <ele>851.8</ele>
        <time>2015-09-22T10:51:39Z</time>
      </trkpt>
      <trkpt lat="42.35689" lon="0.09134">
        <ele>851.8</ele>
        <time>2015-09-22T10:51:40Z</time>
      </trkpt>
      <trkpt lat="42.35685" lon="0.09133">
        <ele>851.9</ele>
        <time>2015-09-22T10:51:41Z</time>
      </trkpt>
      <trkpt lat="42.35681" lon="0.09132">
        <ele>852</ele>
        <time>2015-09-22T10:51:42Z</time>
      </trkpt>
      <trkpt lat="42.35677" lon="0.09131">
        <ele>852</ele>
        <time>2015-09-22T10:51:43Z</time>
      </trkpt>
      <trkpt lat="42.35673" lon="0.0913">
        <ele>852.1</ele>
        <time>2015-09-22T10:51:44Z</time>
      </trkpt>
      <trkpt lat="42.35668" lon="0.09125">
        <ele>852</ele>
        <time>2015-09-22T10:51:46Z</time>
      </trkpt>
      <trkpt lat="42.35667" lon="0.0912">
        <ele>851.9</ele>
        <time>2015-09-22T10:51:47Z</time>
      </trkpt>
      <trkpt lat="42.35665" lon="0.09114">
        <ele>851.9</ele>
        <time>2015-09-22T10:51:48Z</time>
      </trkpt>
      <trkpt lat="42.35662" lon="0.09108">
        <ele>851.9</ele>
        <time>2015-09-22T10:51:49Z</time>
      </trkpt>
      <trkpt lat="42.35659" lon="0.09102">
        <ele>852</ele>
        <time>2015-09-22T10:51:50Z</time>
      </trkpt>
      <trkpt lat="42.35655" lon="0.09098">
        <ele>852</ele>
        <time>2015-09-22T10:51:51Z</time>
      </trkpt>
      <trkpt lat="42.35652" lon="0.09094">
        <ele>852.1</ele>
        <time>2015-09-22T10:51:52Z</time>
      </trkpt>
      <trkpt lat="42.35647" lon="0.09093">
        <ele>852.3</ele>
        <time>2015-09-22T10:51:53Z</time>
      </trkpt>
      <trkpt lat="42.35643" lon="0.09091">
        <ele>852.4</ele>
        <time>2015-09-22T10:51:54Z</time>
      </trkpt>
      <trkpt lat="42.35639" lon="0.09089">
        <ele>852.5</ele>
        <time>2015-09-22T10:51:55Z</time>
      </trkpt>
      <trkpt lat="42.35634" lon="0.09088">
        <ele>852.7</ele>
        <time>2015-09-22T10:51:56Z</time>
      </trkpt>
      <trkpt lat="42.35629" lon="0.09086">
        <ele>852.8</ele>
        <time>2015-09-22T10:51:57Z</time>
      </trkpt>
      <trkpt lat="42.35624" lon="0.09085">
        <ele>853</ele>
        <time>2015-09-22T10:51:58Z</time>
      </trkpt>
      <trkpt lat="42.35619" lon="0.09083">
        <ele>853.1</ele>
        <time>2015-09-22T10:51:59Z</time>
      </trkpt>
      <trkpt lat="42.35613" lon="0.09082">
        <ele>853.2</ele>
        <time>2015-09-22T10:52:00Z</time>
      </trkpt>
      <trkpt lat="42.35608" lon="0.09081">
        <ele>853.3</ele>
        <time>2015-09-22T10:52:01Z</time>
      </trkpt>
      <trkpt lat="42.35603" lon="0.09081">
        <ele>853.4</ele>
        <time>2015-09-22T10:52:02Z</time>
      </trkpt>
      <trkpt lat="42.35598" lon="0.0908">
        <ele>853.5</ele>
        <time>2015-09-22T10:52:03Z</time>
      </trkpt>
      <trkpt lat="42.35593" lon="0.09081">
        <ele>853.6</ele>
        <time>2015-09-22T10:52:04Z</time>
      </trkpt>
      <trkpt lat="42.35589" lon="0.09082">
        <ele>853.6</ele>
        <time>2015-09-22T10:52:05Z</time>
      </trkpt>
      <trkpt lat="42.35584" lon="0.09083">
        <ele>853.7</ele>
        <time>2015-09-22T10:52:06Z</time>
      </trkpt>
      <trkpt lat="42.35579" lon="0.09083">
        <ele>853.8</ele>
        <time>2015-09-22T10:52:07Z</time>
      </trkpt>
      <trkpt lat="42.35574" lon="0.09084">
        <ele>853.9</ele>
        <time>2015-09-22T10:52:08Z</time>
      </trkpt>
      <trkpt lat="42.35568" lon="0.09084">
        <ele>854</ele>
        <time>2015-09-22T10:52:09Z</time>
      </trkpt>
      <trkpt lat="42.35562" lon="0.09084">
        <ele>854.1</ele>
        <time>2015-09-22T10:52:10Z</time>
      </trkpt>
      <trkpt lat="42.35556" lon="0.09084">
        <ele>854.2</ele>
        <time>2015-09-22T10:52:11Z</time>
      </trkpt>
      <trkpt lat="42.35551" lon="0.09083">
        <ele>854.3</ele>
        <time>2015-09-22T10:52:12Z</time>
      </trkpt>
      <trkpt lat="42.35545" lon="0.09081">
        <ele>854.4</ele>
        <time>2015-09-22T10:52:13Z</time>
      </trkpt>
      <trkpt lat="42.3554" lon="0.0908">
        <ele>854.6</ele>
        <time>2015-09-22T10:52:14Z</time>
      </trkpt>
      <trkpt lat="42.35534" lon="0.09075">
        <ele>854.9</ele>
        <time>2015-09-22T10:52:15Z</time>
      </trkpt>
      <trkpt lat="42.35531" lon="0.0907">
        <ele>855</ele>
        <time>2015-09-22T10:52:16Z</time>
      </trkpt>
      <trkpt lat="42.35529" lon="0.09064">
        <ele>855.1</ele>
        <time>2015-09-22T10:52:17Z</time>
      </trkpt>
      <trkpt lat="42.35528" lon="0.09058">
        <ele>855.1</ele>
        <time>2015-09-22T10:52:18Z</time>
      </trkpt>
      <trkpt lat="42.35527" lon="0.09052">
        <ele>855</ele>
        <time>2015-09-22T10:52:19Z</time>
      </trkpt>
      <trkpt lat="42.35528" lon="0.09045">
        <ele>854.9</ele>
        <time>2015-09-22T10:52:20Z</time>
      </trkpt>
      <trkpt lat="42.35529" lon="0.09039">
        <ele>854.7</ele>
        <time>2015-09-22T10:52:21Z</time>
      </trkpt>
      <trkpt lat="42.35531" lon="0.09033">
        <ele>854.6</ele>
        <time>2015-09-22T10:52:22Z</time>
      </trkpt>
      <trkpt lat="42.35533" lon="0.09026">
        <ele>854.4</ele>
        <time>2015-09-22T10:52:23Z</time>
      </trkpt>
      <trkpt lat="42.35536" lon="0.09021">
        <ele>854.1</ele>
        <time>2015-09-22T10:52:24Z</time>
      </trkpt>
      <trkpt lat="42.35539" lon="0.09016">
        <ele>853.9</ele>
        <time>2015-09-22T10:52:25Z</time>
      </trkpt>
      <trkpt lat="42.35541" lon="0.0901">
        <ele>853.7</ele>
        <time>2015-09-22T10:52:26Z</time>
      </trkpt>
      <trkpt lat="42.35545" lon="0.09004">
        <ele>853.5</ele>
        <time>2015-09-22T10:52:27Z</time>
      </trkpt>
      <trkpt lat="42.35549" lon="0.08997">
        <ele>853.3</ele>
        <time>2015-09-22T10:52:28Z</time>
      </trkpt>
      <trkpt lat="42.35552" lon="0.08991">
        <ele>853.2</ele>
        <time>2015-09-22T10:52:29Z</time>
      </trkpt>
      <trkpt lat="42.35555" lon="0.08984">
        <ele>853</ele>
        <time>2015-09-22T10:52:30Z</time>
      </trkpt>
      <trkpt lat="42.35558" lon="0.08976">
        <ele>852.9</ele>
        <time>2015-09-22T10:52:31Z</time>
      </trkpt>
      <trkpt lat="42.3556" lon="0.08969">
        <ele>852.7</ele>
        <time>2015-09-22T10:52:32Z</time>
      </trkpt>
      <trkpt lat="42.35562" lon="0.08963">
        <ele>852.6</ele>
        <time>2015-09-22T10:52:33Z</time>
      </trkpt>
      <trkpt lat="42.35562" lon="0.08958">
        <ele>852.5</ele>
        <time>2015-09-22T10:52:34Z</time>
      </trkpt>
      <trkpt lat="42.35561" lon="0.08953">
        <ele>852.4</ele>
        <time>2015-09-22T10:52:35Z</time>
      </trkpt>
      <trkpt lat="42.35561" lon="0.0895">
        <ele>852.3</ele>
        <time>2015-09-22T10:52:36Z</time>
      </trkpt>
      <trkpt lat="42.35562" lon="0.08941">
        <ele>852</ele>
        <time>2015-09-22T10:52:38Z</time>
      </trkpt>
      <trkpt lat="42.35564" lon="0.08937">
        <ele>851.7</ele>
        <time>2015-09-22T10:52:39Z</time>
      </trkpt>
      <trkpt lat="42.35566" lon="0.08932">
        <ele>851.5</ele>
        <time>2015-09-22T10:52:40Z</time>
      </trkpt>
      <trkpt lat="42.35568" lon="0.08928">
        <ele>851.3</ele>
        <time>2015-09-22T10:52:41Z</time>
      </trkpt>
      <trkpt lat="42.3557" lon="0.08923">
        <ele>851</ele>
        <time>2015-09-22T10:52:42Z</time>
      </trkpt>
      <trkpt lat="42.35572" lon="0.08918">
        <ele>850.8</ele>
        <time>2015-09-22T10:52:43Z</time>
      </trkpt>
      <trkpt lat="42.35574" lon="0.08913">
        <ele>850.5</ele>
        <time>2015-09-22T10:52:44Z</time>
      </trkpt>
      <trkpt lat="42.35576" lon="0.08908">
        <ele>850.2</ele>
        <time>2015-09-22T10:52:45Z</time>
      </trkpt>
      <trkpt lat="42.35578" lon="0.08904">
        <ele>849.9</ele>
        <time>2015-09-22T10:52:46Z</time>
      </trkpt>
      <trkpt lat="42.35581" lon="0.08899">
        <ele>849.6</ele>
        <time>2015-09-22T10:52:47Z</time>
      </trkpt>
      <trkpt lat="42.35583" lon="0.08894">
        <ele>849.3</ele>
        <time>2015-09-22T10:52:48Z</time>
      </trkpt>
      <trkpt lat="42.35587" lon="0.08889">
        <ele>848.9</ele>
        <time>2015-09-22T10:52:49Z</time>
      </trkpt>
      <trkpt lat="42.35589" lon="0.08883">
        <ele>848.5</ele>
        <time>2015-09-22T10:52:50Z</time>
      </trkpt>
      <trkpt lat="42.35591" lon="0.08877">
        <ele>848.1</ele>
        <time>2015-09-22T10:52:51Z</time>
      </trkpt>
      <trkpt lat="42.35592" lon="0.0887">
        <ele>847.8</ele>
        <time>2015-09-22T10:52:52Z</time>
      </trkpt>
      <trkpt lat="42.35592" lon="0.08861">
        <ele>847.6</ele>
        <time>2015-09-22T10:52:53Z</time>
      </trkpt>
      <trkpt lat="42.35592" lon="0.08852">
        <ele>847.3</ele>
        <time>2015-09-22T10:52:54Z</time>
      </trkpt>
      <trkpt lat="42.35589" lon="0.08843">
        <ele>847.2</ele>
        <time>2015-09-22T10:52:55Z</time>
      </trkpt>
      <trkpt lat="42.35588" lon="0.08834">
        <ele>847</ele>
        <time>2015-09-22T10:52:56Z</time>
      </trkpt>
      <trkpt lat="42.35584" lon="0.08825">
        <ele>846.9</ele>
        <time>2015-09-22T10:52:57Z</time>
      </trkpt>
      <trkpt lat="42.35582" lon="0.08817">
        <ele>846.8</ele>
        <time>2015-09-22T10:52:58Z</time>
      </trkpt>
      <trkpt lat="42.3558" lon="0.08808">
        <ele>846.7</ele>
        <time>2015-09-22T10:52:59Z</time>
      </trkpt>
      <trkpt lat="42.35578" lon="0.088">
        <ele>846.5</ele>
        <time>2015-09-22T10:53:00Z</time>
      </trkpt>
      <trkpt lat="42.35576" lon="0.08791">
        <ele>846.3</ele>
        <time>2015-09-22T10:53:01Z</time>
      </trkpt>
      <trkpt lat="42.35575" lon="0.08783">
        <ele>846.2</ele>
        <time>2015-09-22T10:53:02Z</time>
      </trkpt>
      <trkpt lat="42.35574" lon="0.08775">
        <ele>846.1</ele>
        <time>2015-09-22T10:53:03Z</time>
      </trkpt>
      <trkpt lat="42.35573" lon="0.08767">
        <ele>846</ele>
        <time>2015-09-22T10:53:04Z</time>
      </trkpt>
      <trkpt lat="42.35573" lon="0.08759">
        <ele>845.8</ele>
        <time>2015-09-22T10:53:05Z</time>
      </trkpt>
      <trkpt lat="42.35573" lon="0.08751">
        <ele>845.7</ele>
        <time>2015-09-22T10:53:06Z</time>
      </trkpt>
      <trkpt lat="42.35573" lon="0.08743">
        <ele>845.5</ele>
        <time>2015-09-22T10:53:07Z</time>
      </trkpt>
      <trkpt lat="42.35573" lon="0.08736">
        <ele>845.4</ele>
        <time>2015-09-22T10:53:08Z</time>
      </trkpt>
      <trkpt lat="42.35571" lon="0.0873">
        <ele>845.4</ele>
        <time>2015-09-22T10:53:09Z</time>
      </trkpt>
      <trkpt lat="42.35566" lon="0.08724">
        <ele>845.5</ele>
        <time>2015-09-22T10:53:10Z</time>
      </trkpt>
      <trkpt lat="42.35562" lon="0.08718">
        <ele>845.7</ele>
        <time>2015-09-22T10:53:11Z</time>
      </trkpt>
      <trkpt lat="42.35558" lon="0.08713">
        <ele>845.9</ele>
        <time>2015-09-22T10:53:12Z</time>
      </trkpt>
      <trkpt lat="42.35554" lon="0.08708">
        <ele>846.1</ele>
        <time>2015-09-22T10:53:13Z</time>
      </trkpt>
      <trkpt lat="42.35551" lon="0.08702">
        <ele>846.4</ele>
        <time>2015-09-22T10:53:14Z</time>
      </trkpt>
      <trkpt lat="42.35549" lon="0.08697">
        <ele>846.6</ele>
        <time>2015-09-22T10:53:15Z</time>
      </trkpt>
      <trkpt lat="42.35548" lon="0.08691">
        <ele>846.7</ele>
        <time>2015-09-22T10:53:17Z</time>
      </trkpt>
      <trkpt lat="42.35547" lon="0.08687">
        <ele>846.8</ele>
        <time>2015-09-22T10:53:18Z</time>
      </trkpt>
      <trkpt lat="42.35546" lon="0.08682">
        <ele>846.9</ele>
        <time>2015-09-22T10:53:19Z</time>
      </trkpt>
      <trkpt lat="42.35545" lon="0.08677">
        <ele>847.1</ele>
        <time>2015-09-22T10:53:20Z</time>
      </trkpt>
      <trkpt lat="42.35545" lon="0.08673">
        <ele>847.1</ele>
        <time>2015-09-22T10:53:21Z</time>
      </trkpt>
      <trkpt lat="42.35546" lon="0.08669">
        <ele>847.1</ele>
        <time>2015-09-22T10:53:22Z</time>
      </trkpt>
      <trkpt lat="42.35547" lon="0.08666">
        <ele>847</ele>
        <time>2015-09-22T10:53:23Z</time>
      </trkpt>
      <trkpt lat="42.35549" lon="0.08662">
        <ele>846.9</ele>
        <time>2015-09-22T10:53:24Z</time>
      </trkpt>
      <trkpt lat="42.35551" lon="0.08658">
        <ele>846.7</ele>
        <time>2015-09-22T10:53:25Z</time>
      </trkpt>
      <trkpt lat="42.35553" lon="0.08653">
        <ele>846.6</ele>
        <time>2015-09-22T10:53:26Z</time>
      </trkpt>
      <trkpt lat="42.35555" lon="0.08647">
        <ele>846.4</ele>
        <time>2015-09-22T10:53:27Z</time>
      </trkpt>
      <trkpt lat="42.35557" lon="0.08642">
        <ele>846.3</ele>
        <time>2015-09-22T10:53:28Z</time>
      </trkpt>
      <trkpt lat="42.35558" lon="0.08634">
        <ele>846.2</ele>
        <time>2015-09-22T10:53:29Z</time>
      </trkpt>
      <trkpt lat="42.35558" lon="0.08628">
        <ele>846.2</ele>
        <time>2015-09-22T10:53:30Z</time>
      </trkpt>
      <trkpt lat="42.35556" lon="0.08622">
        <ele>846.3</ele>
        <time>2015-09-22T10:53:31Z</time>
      </trkpt>
      <trkpt lat="42.35557" lon="0.08615">
        <ele>846.1</ele>
        <time>2015-09-22T10:53:32Z</time>
      </trkpt>
      <trkpt lat="42.35554" lon="0.08609">
        <ele>846.2</ele>
        <time>2015-09-22T10:53:33Z</time>
      </trkpt>
      <trkpt lat="42.35552" lon="0.08604">
        <ele>846.3</ele>
        <time>2015-09-22T10:53:34Z</time>
      </trkpt>
      <trkpt lat="42.3555" lon="0.08599">
        <ele>846.5</ele>
        <time>2015-09-22T10:53:35Z</time>
      </trkpt>
      <trkpt lat="42.35547" lon="0.08594">
        <ele>846.6</ele>
        <time>2015-09-22T10:53:36Z</time>
      </trkpt>
      <trkpt lat="42.35546" lon="0.08589">
        <ele>846.7</ele>
        <time>2015-09-22T10:53:37Z</time>
      </trkpt>
      <trkpt lat="42.35543" lon="0.08585">
        <ele>846.8</ele>
        <time>2015-09-22T10:53:38Z</time>
      </trkpt>
      <trkpt lat="42.35542" lon="0.0858">
        <ele>846.9</ele>
        <time>2015-09-22T10:53:39Z</time>
      </trkpt>
      <trkpt lat="42.35541" lon="0.08576">
        <ele>847</ele>
        <time>2015-09-22T10:53:40Z</time>
      </trkpt>
      <trkpt lat="42.35539" lon="0.08572">
        <ele>847</ele>
        <time>2015-09-22T10:53:41Z</time>
      </trkpt>
      <trkpt lat="42.35538" lon="0.08568">
        <ele>847.2</ele>
        <time>2015-09-22T10:53:42Z</time>
      </trkpt>
      <trkpt lat="42.35537" lon="0.08565">
        <ele>847.2</ele>
        <time>2015-09-22T10:53:43Z</time>
      </trkpt>
      <trkpt lat="42.35534" lon="0.08559">
        <ele>847.4</ele>
        <time>2015-09-22T10:53:45Z</time>
      </trkpt>
      <trkpt lat="42.35532" lon="0.08554">
        <ele>847.6</ele>
        <time>2015-09-22T10:53:47Z</time>
      </trkpt>
      <trkpt lat="42.35531" lon="0.08548">
        <ele>847.6</ele>
        <time>2015-09-22T10:53:49Z</time>
      </trkpt>
      <trkpt lat="42.35529" lon="0.08542">
        <ele>847.6</ele>
        <time>2015-09-22T10:53:51Z</time>
      </trkpt>
      <trkpt lat="42.35528" lon="0.08535">
        <ele>847.4</ele>
        <time>2015-09-22T10:53:53Z</time>
      </trkpt>
      <trkpt lat="42.35528" lon="0.08528">
        <ele>847.1</ele>
        <time>2015-09-22T10:53:55Z</time>
      </trkpt>
      <trkpt lat="42.35529" lon="0.08521">
        <ele>846.7</ele>
        <time>2015-09-22T10:53:57Z</time>
      </trkpt>
      <trkpt lat="42.3553" lon="0.08517">
        <ele>846.4</ele>
        <time>2015-09-22T10:54:08Z</time>
      </trkpt>
      <trkpt lat="42.35532" lon="0.08515">
        <ele>845.9</ele>
        <time>2015-09-22T10:54:13Z</time>
      </trkpt>
      <trkpt lat="42.35535" lon="0.08515">
        <ele>845.5</ele>
        <time>2015-09-22T10:54:30Z</time>
      </trkpt>
      <trkpt lat="42.35539" lon="0.08516">
        <ele>845.1</ele>
        <time>2015-09-22T10:55:48Z</time>
      </trkpt>
      <trkpt lat="42.35545" lon="0.08523">
        <ele>844.6</ele>
        <time>2015-09-22T10:56:55Z</time>
      </trkpt>
      <trkpt lat="42.3555" lon="0.08524">
        <ele>844.1</ele>
        <time>2015-09-22T10:56:57Z</time>
      </trkpt>
      <trkpt lat="42.35555" lon="0.08525">
        <ele>843.6</ele>
        <time>2015-09-22T10:56:59Z</time>
      </trkpt>
      <trkpt lat="42.35558" lon="0.08527">
        <ele>843.3</ele>
        <time>2015-09-22T10:57:01Z</time>
      </trkpt>
      <trkpt lat="42.35562" lon="0.08527">
        <ele>842.8</ele>
        <time>2015-09-22T10:57:04Z</time>
      </trkpt>
      <trkpt lat="42.35564" lon="0.0853">
        <ele>842.7</ele>
        <time>2015-09-22T10:57:07Z</time>
      </trkpt>
      <trkpt lat="42.35563" lon="0.08533">
        <ele>843</ele>
        <time>2015-09-22T10:57:13Z</time>
      </trkpt>
      <trkpt lat="42.35566" lon="0.08532">
        <ele>842.6</ele>
        <time>2015-09-22T10:57:24Z</time>
      </trkpt>
      <trkpt lat="42.35567" lon="0.08529">
        <ele>842.2</ele>
        <time>2015-09-22T10:57:29Z</time>
      </trkpt>
      <trkpt lat="42.35565" lon="0.08526">
        <ele>842.3</ele>
        <time>2015-09-22T10:58:11Z</time>
      </trkpt>
      <trkpt lat="42.35563" lon="0.08524">
        <ele>842.5</ele>
        <time>2015-09-22T10:58:36Z</time>
      </trkpt>
      <trkpt lat="42.35564" lon="0.08528">
        <ele>842.5</ele>
        <time>2015-09-22T10:58:54Z</time>
      </trkpt>
      <trkpt lat="42.35565" lon="0.08531">
        <ele>842.7</ele>
        <time>2015-09-22T10:58:57Z</time>
      </trkpt>
      <trkpt lat="42.35566" lon="0.08534">
        <ele>842.6</ele>
        <time>2015-09-22T10:59:00Z</time>
      </trkpt>
      <trkpt lat="42.35568" lon="0.08538">
        <ele>842.7</ele>
        <time>2015-09-22T10:59:03Z</time>
      </trkpt>
      <trkpt lat="42.35565" lon="0.08537">
        <ele>843</ele>
        <time>2015-09-22T10:59:18Z</time>
      </trkpt>
      <trkpt lat="42.3556" lon="0.08531">
        <ele>843.2</ele>
        <time>2015-09-22T11:00:19Z</time>
      </trkpt>
      <trkpt lat="42.35557" lon="0.08529">
        <ele>843.5</ele>
        <time>2015-09-22T11:00:21Z</time>
      </trkpt>
      <trkpt lat="42.35554" lon="0.08528">
        <ele>843.9</ele>
        <time>2015-09-22T11:00:23Z</time>
      </trkpt>
      <trkpt lat="42.35551" lon="0.08527">
        <ele>844.1</ele>
        <time>2015-09-22T11:00:24Z</time>
      </trkpt>
      <trkpt lat="42.35548" lon="0.08526">
        <ele>844.4</ele>
        <time>2015-09-22T11:00:28Z</time>
      </trkpt>
      <trkpt lat="42.35545" lon="0.08526">
        <ele>844.8</ele>
        <time>2015-09-22T11:00:31Z</time>
      </trkpt>
      <trkpt lat="42.35542" lon="0.08526">
        <ele>845.2</ele>
        <time>2015-09-22T11:00:39Z</time>
      </trkpt>
      <trkpt lat="42.35542" lon="0.08522">
        <ele>845.1</ele>
        <time>2015-09-22T11:00:53Z</time>
      </trkpt>
      <trkpt lat="42.35541" lon="0.08519">
        <ele>845</ele>
        <time>2015-09-22T11:01:05Z</time>
      </trkpt>
      <trkpt lat="42.35533" lon="0.08515">
        <ele>845.9</ele>
        <time>2015-09-22T11:01:50Z</time>
      </trkpt>
      <trkpt lat="42.3553" lon="0.08515">
        <ele>846.2</ele>
        <time>2015-09-22T11:02:03Z</time>
      </trkpt>
      <trkpt lat="42.3553" lon="0.08511">
        <ele>846.1</ele>
        <time>2015-09-22T11:02:43Z</time>
      </trkpt>
      <trkpt lat="42.35528" lon="0.08507">
        <ele>846.2</ele>
        <time>2015-09-22T11:02:47Z</time>
      </trkpt>
      <trkpt lat="42.35527" lon="0.08503">
        <ele>846.1</ele>
        <time>2015-09-22T11:02:51Z</time>
      </trkpt>
      <trkpt lat="42.35528" lon="0.08499">
        <ele>845.8</ele>
        <time>2015-09-22T11:02:55Z</time>
      </trkpt>
      <trkpt lat="42.35527" lon="0.08503">
        <ele>846</ele>
        <time>2015-09-22T11:03:08Z</time>
      </trkpt>
      <trkpt lat="42.35528" lon="0.08507">
        <ele>846.1</ele>
        <time>2015-09-22T11:03:12Z</time>
      </trkpt>
      <trkpt lat="42.3553" lon="0.0851">
        <ele>846.1</ele>
        <time>2015-09-22T11:03:16Z</time>
      </trkpt>
      <trkpt lat="42.3553" lon="0.08515">
        <ele>846.3</ele>
        <time>2015-09-22T11:03:17Z</time>
      </trkpt>
      <trkpt lat="42.3553" lon="0.08523">
        <ele>846.7</ele>
        <time>2015-09-22T11:03:19Z</time>
      </trkpt>
      <trkpt lat="42.3553" lon="0.08527">
        <ele>846.8</ele>
        <time>2015-09-22T11:03:20Z</time>
      </trkpt>
      <trkpt lat="42.3553" lon="0.08532">
        <ele>847.1</ele>
        <time>2015-09-22T11:03:21Z</time>
      </trkpt>
      <trkpt lat="42.3553" lon="0.08536">
        <ele>847.2</ele>
        <time>2015-09-22T11:03:22Z</time>
      </trkpt>
      <trkpt lat="42.35531" lon="0.0854">
        <ele>847.4</ele>
        <time>2015-09-22T11:03:23Z</time>
      </trkpt>
      <trkpt lat="42.35533" lon="0.08546">
        <ele>847.3</ele>
        <time>2015-09-22T11:03:25Z</time>
      </trkpt>
      <trkpt lat="42.35535" lon="0.0855">
        <ele>847.1</ele>
        <time>2015-09-22T11:03:28Z</time>
      </trkpt>
      <trkpt lat="42.35535" lon="0.08554">
        <ele>847.2</ele>
        <time>2015-09-22T11:04:44Z</time>
      </trkpt>
      <trkpt lat="42.35536" lon="0.08558">
        <ele>847.1</ele>
        <time>2015-09-22T11:04:45Z</time>
      </trkpt>
      <trkpt lat="42.35537" lon="0.08562">
        <ele>847.1</ele>
        <time>2015-09-22T11:04:46Z</time>
      </trkpt>
      <trkpt lat="42.35538" lon="0.08566">
        <ele>847.1</ele>
        <time>2015-09-22T11:04:47Z</time>
      </trkpt>
      <trkpt lat="42.35539" lon="0.0857">
        <ele>847</ele>
        <time>2015-09-22T11:04:48Z</time>
      </trkpt>
      <trkpt lat="42.3554" lon="0.08574">
        <ele>847</ele>
        <time>2015-09-22T11:04:49Z</time>
      </trkpt>
      <trkpt lat="42.35542" lon="0.08579">
        <ele>846.9</ele>
        <time>2015-09-22T11:04:50Z</time>
      </trkpt>
      <trkpt lat="42.35543" lon="0.08584">
        <ele>846.8</ele>
        <time>2015-09-22T11:04:51Z</time>
      </trkpt>
      <trkpt lat="42.35545" lon="0.08589">
        <ele>846.8</ele>
        <time>2015-09-22T11:04:52Z</time>
      </trkpt>
      <trkpt lat="42.35547" lon="0.08594">
        <ele>846.7</ele>
        <time>2015-09-22T11:04:53Z</time>
      </trkpt>
      <trkpt lat="42.35549" lon="0.08599">
        <ele>846.6</ele>
        <time>2015-09-22T11:04:54Z</time>
      </trkpt>
      <trkpt lat="42.35551" lon="0.08604">
        <ele>846.5</ele>
        <time>2015-09-22T11:04:55Z</time>
      </trkpt>
      <trkpt lat="42.35553" lon="0.08609">
        <ele>846.3</ele>
        <time>2015-09-22T11:04:56Z</time>
      </trkpt>
      <trkpt lat="42.35555" lon="0.08614">
        <ele>846.2</ele>
        <time>2015-09-22T11:04:57Z</time>
      </trkpt>
      <trkpt lat="42.35557" lon="0.08619">
        <ele>846.2</ele>
        <time>2015-09-22T11:04:58Z</time>
      </trkpt>
      <trkpt lat="42.35558" lon="0.08624">
        <ele>846.2</ele>
        <time>2015-09-22T11:04:59Z</time>
      </trkpt>
      <trkpt lat="42.35559" lon="0.08629">
        <ele>846.1</ele>
        <time>2015-09-22T11:05:00Z</time>
      </trkpt>
      <trkpt lat="42.3556" lon="0.08635">
        <ele>846</ele>
        <time>2015-09-22T11:05:02Z</time>
      </trkpt>
      <trkpt lat="42.35558" lon="0.08639">
        <ele>846.1</ele>
        <time>2015-09-22T11:05:03Z</time>
      </trkpt>
      <trkpt lat="42.35557" lon="0.08642">
        <ele>846.2</ele>
        <time>2015-09-22T11:05:04Z</time>
      </trkpt>
      <trkpt lat="42.35556" lon="0.08646">
        <ele>846.3</ele>
        <time>2015-09-22T11:05:05Z</time>
      </trkpt>
      <trkpt lat="42.35555" lon="0.0865">
        <ele>846.4</ele>
        <time>2015-09-22T11:05:06Z</time>
      </trkpt>
      <trkpt lat="42.35553" lon="0.08654">
        <ele>846.6</ele>
        <time>2015-09-22T11:05:07Z</time>
      </trkpt>
      <trkpt lat="42.35552" lon="0.08657">
        <ele>846.7</ele>
        <time>2015-09-22T11:05:08Z</time>
      </trkpt>
      <trkpt lat="42.3555" lon="0.0866">
        <ele>846.8</ele>
        <time>2015-09-22T11:05:09Z</time>
      </trkpt>
      <trkpt lat="42.35547" lon="0.08666">
        <ele>847</ele>
        <time>2015-09-22T11:05:11Z</time>
      </trkpt>
      <trkpt lat="42.35545" lon="0.08671">
        <ele>847.2</ele>
        <time>2015-09-22T11:05:13Z</time>
      </trkpt>
      <trkpt lat="42.35543" lon="0.08676">
        <ele>847.2</ele>
        <time>2015-09-22T11:05:15Z</time>
      </trkpt>
      <trkpt lat="42.35545" lon="0.08682">
        <ele>847</ele>
        <time>2015-09-22T11:05:17Z</time>
      </trkpt>
      <trkpt lat="42.35546" lon="0.08685">
        <ele>846.9</ele>
        <time>2015-09-22T11:05:18Z</time>
      </trkpt>
      <trkpt lat="42.35549" lon="0.0869">
        <ele>846.7</ele>
        <time>2015-09-22T11:05:20Z</time>
      </trkpt>
      <trkpt lat="42.3555" lon="0.08695">
        <ele>846.5</ele>
        <time>2015-09-22T11:05:31Z</time>
      </trkpt>
      <trkpt lat="42.35552" lon="0.08701">
        <ele>846.3</ele>
        <time>2015-09-22T11:05:33Z</time>
      </trkpt>
      <trkpt lat="42.35555" lon="0.08706">
        <ele>846</ele>
        <time>2015-09-22T11:05:35Z</time>
      </trkpt>
      <trkpt lat="42.35559" lon="0.08711">
        <ele>845.8</ele>
        <time>2015-09-22T11:05:37Z</time>
      </trkpt>
      <trkpt lat="42.35562" lon="0.08715">
        <ele>845.6</ele>
        <time>2015-09-22T11:05:39Z</time>
      </trkpt>
      <trkpt lat="42.35566" lon="0.0872">
        <ele>845.5</ele>
        <time>2015-09-22T11:05:41Z</time>
      </trkpt>
      <trkpt lat="42.3557" lon="0.08724">
        <ele>845.3</ele>
        <time>2015-09-22T11:05:43Z</time>
      </trkpt>
      <trkpt lat="42.35573" lon="0.0873">
        <ele>845.2</ele>
        <time>2015-09-22T11:05:45Z</time>
      </trkpt>
      <trkpt lat="42.35574" lon="0.08736">
        <ele>845.3</ele>
        <time>2015-09-22T11:05:47Z</time>
      </trkpt>
      <trkpt lat="42.35575" lon="0.08742">
        <ele>845.3</ele>
        <time>2015-09-22T11:05:49Z</time>
      </trkpt>
      <trkpt lat="42.35575" lon="0.08748">
        <ele>845.5</ele>
        <time>2015-09-22T11:05:51Z</time>
      </trkpt>
      <trkpt lat="42.35575" lon="0.08755">
        <ele>845.6</ele>
        <time>2015-09-22T11:05:53Z</time>
      </trkpt>
      <trkpt lat="42.35575" lon="0.08762">
        <ele>845.8</ele>
        <time>2015-09-22T11:05:55Z</time>
      </trkpt>
      <trkpt lat="42.35575" lon="0.08766">
        <ele>845.8</ele>
        <time>2015-09-22T11:05:56Z</time>
      </trkpt>
      <trkpt lat="42.35576" lon="0.0877">
        <ele>845.9</ele>
        <time>2015-09-22T11:05:57Z</time>
      </trkpt>
      <trkpt lat="42.35576" lon="0.08773">
        <ele>845.9</ele>
        <time>2015-09-22T11:05:58Z</time>
      </trkpt>
      <trkpt lat="42.35577" lon="0.08777">
        <ele>846</ele>
        <time>2015-09-22T11:05:59Z</time>
      </trkpt>
      <trkpt lat="42.35578" lon="0.08785">
        <ele>846.1</ele>
        <time>2015-09-22T11:06:01Z</time>
      </trkpt>
      <trkpt lat="42.35578" lon="0.08788">
        <ele>846.2</ele>
        <time>2015-09-22T11:06:02Z</time>
      </trkpt>
      <trkpt lat="42.35579" lon="0.08792">
        <ele>846.2</ele>
        <time>2015-09-22T11:06:03Z</time>
      </trkpt>
      <trkpt lat="42.35579" lon="0.08796">
        <ele>846.3</ele>
        <time>2015-09-22T11:06:04Z</time>
      </trkpt>
      <trkpt lat="42.35579" lon="0.08799">
        <ele>846.4</ele>
        <time>2015-09-22T11:06:05Z</time>
      </trkpt>
      <trkpt lat="42.3558" lon="0.08807">
        <ele>846.6</ele>
        <time>2015-09-22T11:06:07Z</time>
      </trkpt>
      <trkpt lat="42.35582" lon="0.08814">
        <ele>846.8</ele>
        <time>2015-09-22T11:06:09Z</time>
      </trkpt>
      <trkpt lat="42.35583" lon="0.08821">
        <ele>846.9</ele>
        <time>2015-09-22T11:06:11Z</time>
      </trkpt>
      <trkpt lat="42.35585" lon="0.08827">
        <ele>847</ele>
        <time>2015-09-22T11:06:13Z</time>
      </trkpt>
      <trkpt lat="42.35588" lon="0.08833">
        <ele>847</ele>
        <time>2015-09-22T11:06:15Z</time>
      </trkpt>
      <trkpt lat="42.35589" lon="0.0884">
        <ele>847.1</ele>
        <time>2015-09-22T11:06:17Z</time>
      </trkpt>
      <trkpt lat="42.35591" lon="0.08846">
        <ele>847.2</ele>
        <time>2015-09-22T11:06:19Z</time>
      </trkpt>
      <trkpt lat="42.35592" lon="0.08853">
        <ele>847.4</ele>
        <time>2015-09-22T11:06:21Z</time>
      </trkpt>
      <trkpt lat="42.35593" lon="0.08859">
        <ele>847.5</ele>
        <time>2015-09-22T11:06:23Z</time>
      </trkpt>
      <trkpt lat="42.35593" lon="0.08866">
        <ele>847.7</ele>
        <time>2015-09-22T11:06:25Z</time>
      </trkpt>
      <trkpt lat="42.35593" lon="0.08873">
        <ele>847.9</ele>
        <time>2015-09-22T11:06:27Z</time>
      </trkpt>
      <trkpt lat="42.35592" lon="0.08879">
        <ele>848.2</ele>
        <time>2015-09-22T11:06:29Z</time>
      </trkpt>
      <trkpt lat="42.35591" lon="0.08884">
        <ele>848.5</ele>
        <time>2015-09-22T11:06:31Z</time>
      </trkpt>
      <trkpt lat="42.3559" lon="0.08889">
        <ele>848.7</ele>
        <time>2015-09-22T11:06:33Z</time>
      </trkpt>
      <trkpt lat="42.35588" lon="0.08894">
        <ele>849</ele>
        <time>2015-09-22T11:06:35Z</time>
      </trkpt>
      <trkpt lat="42.35585" lon="0.08898">
        <ele>849.4</ele>
        <time>2015-09-22T11:06:37Z</time>
      </trkpt>
      <trkpt lat="42.35583" lon="0.08902">
        <ele>849.7</ele>
        <time>2015-09-22T11:06:39Z</time>
      </trkpt>
      <trkpt lat="42.3558" lon="0.08906">
        <ele>849.9</ele>
        <time>2015-09-22T11:06:41Z</time>
      </trkpt>
      <trkpt lat="42.35578" lon="0.0891">
        <ele>850.2</ele>
        <time>2015-09-22T11:06:43Z</time>
      </trkpt>
      <trkpt lat="42.35576" lon="0.08916">
        <ele>850.5</ele>
        <time>2015-09-22T11:06:45Z</time>
      </trkpt>
      <trkpt lat="42.35573" lon="0.08922">
        <ele>850.9</ele>
        <time>2015-09-22T11:06:47Z</time>
      </trkpt>
      <trkpt lat="42.3557" lon="0.08927">
        <ele>851.2</ele>
        <time>2015-09-22T11:06:49Z</time>
      </trkpt>
      <trkpt lat="42.35567" lon="0.08933">
        <ele>851.5</ele>
        <time>2015-09-22T11:06:51Z</time>
      </trkpt>
      <trkpt lat="42.35564" lon="0.08938">
        <ele>851.8</ele>
        <time>2015-09-22T11:06:53Z</time>
      </trkpt>
      <trkpt lat="42.35561" lon="0.08944">
        <ele>852.1</ele>
        <time>2015-09-22T11:06:55Z</time>
      </trkpt>
      <trkpt lat="42.35559" lon="0.08949">
        <ele>852.3</ele>
        <time>2015-09-22T11:06:57Z</time>
      </trkpt>
      <trkpt lat="42.35559" lon="0.08956">
        <ele>852.5</ele>
        <time>2015-09-22T11:06:59Z</time>
      </trkpt>
      <trkpt lat="42.35559" lon="0.0896">
        <ele>852.6</ele>
        <time>2015-09-22T11:07:00Z</time>
      </trkpt>
      <trkpt lat="42.35558" lon="0.08967">
        <ele>852.7</ele>
        <time>2015-09-22T11:07:01Z</time>
      </trkpt>
      <trkpt lat="42.35557" lon="0.08975">
        <ele>852.9</ele>
        <time>2015-09-22T11:07:02Z</time>
      </trkpt>
      <trkpt lat="42.35554" lon="0.08982">
        <ele>853</ele>
        <time>2015-09-22T11:07:03Z</time>
      </trkpt>
      <trkpt lat="42.35551" lon="0.08988">
        <ele>853.2</ele>
        <time>2015-09-22T11:07:04Z</time>
      </trkpt>
      <trkpt lat="42.35549" lon="0.08994">
        <ele>853.3</ele>
        <time>2015-09-22T11:07:05Z</time>
      </trkpt>
      <trkpt lat="42.35546" lon="0.08999">
        <ele>853.4</ele>
        <time>2015-09-22T11:07:06Z</time>
      </trkpt>
      <trkpt lat="42.35544" lon="0.09003">
        <ele>853.5</ele>
        <time>2015-09-22T11:07:07Z</time>
      </trkpt>
      <trkpt lat="42.35541" lon="0.09008">
        <ele>853.6</ele>
        <time>2015-09-22T11:07:08Z</time>
      </trkpt>
      <trkpt lat="42.35539" lon="0.09013">
        <ele>853.8</ele>
        <time>2015-09-22T11:07:09Z</time>
      </trkpt>
      <trkpt lat="42.35537" lon="0.09017">
        <ele>854</ele>
        <time>2015-09-22T11:07:10Z</time>
      </trkpt>
      <trkpt lat="42.35535" lon="0.09021">
        <ele>854.2</ele>
        <time>2015-09-22T11:07:11Z</time>
      </trkpt>
      <trkpt lat="42.35534" lon="0.09025">
        <ele>854.3</ele>
        <time>2015-09-22T11:07:12Z</time>
      </trkpt>
      <trkpt lat="42.35532" lon="0.09029">
        <ele>854.4</ele>
        <time>2015-09-22T11:07:13Z</time>
      </trkpt>
      <trkpt lat="42.35531" lon="0.09033">
        <ele>854.5</ele>
        <time>2015-09-22T11:07:14Z</time>
      </trkpt>
      <trkpt lat="42.3553" lon="0.09038">
        <ele>854.6</ele>
        <time>2015-09-22T11:07:16Z</time>
      </trkpt>
      <trkpt lat="42.35529" lon="0.09042">
        <ele>854.8</ele>
        <time>2015-09-22T11:07:18Z</time>
      </trkpt>
      <trkpt lat="42.35528" lon="0.09046">
        <ele>854.9</ele>
        <time>2015-09-22T11:07:20Z</time>
      </trkpt>
      <trkpt lat="42.35527" lon="0.0905">
        <ele>855</ele>
        <time>2015-09-22T11:08:27Z</time>
      </trkpt>
      <trkpt lat="42.35527" lon="0.09055">
        <ele>855</ele>
        <time>2015-09-22T11:08:28Z</time>
      </trkpt>
      <trkpt lat="42.35528" lon="0.0906">
        <ele>855.1</ele>
        <time>2015-09-22T11:08:29Z</time>
      </trkpt>
      <trkpt lat="42.35529" lon="0.09065">
        <ele>855.1</ele>
        <time>2015-09-22T11:08:30Z</time>
      </trkpt>
      <trkpt lat="42.35532" lon="0.09071">
        <ele>855</ele>
        <time>2015-09-22T11:08:31Z</time>
      </trkpt>
      <trkpt lat="42.35535" lon="0.09076">
        <ele>854.8</ele>
        <time>2015-09-22T11:08:32Z</time>
      </trkpt>
      <trkpt lat="42.35541" lon="0.09078">
        <ele>854.5</ele>
        <time>2015-09-22T11:08:33Z</time>
      </trkpt>
      <trkpt lat="42.35545" lon="0.09078">
        <ele>854.4</ele>
        <time>2015-09-22T11:08:34Z</time>
      </trkpt>
      <trkpt lat="42.35549" lon="0.09078">
        <ele>854.3</ele>
        <time>2015-09-22T11:08:35Z</time>
      </trkpt>
      <trkpt lat="42.35553" lon="0.09079">
        <ele>854.2</ele>
        <time>2015-09-22T11:08:36Z</time>
      </trkpt>
      <trkpt lat="42.35557" lon="0.09079">
        <ele>854.2</ele>
        <time>2015-09-22T11:08:37Z</time>
      </trkpt>
      <trkpt lat="42.3556" lon="0.09079">
        <ele>854.1</ele>
        <time>2015-09-22T11:08:38Z</time>
      </trkpt>
      <trkpt lat="42.35563" lon="0.09079">
        <ele>854.1</ele>
        <time>2015-09-22T11:08:39Z</time>
      </trkpt>
      <trkpt lat="42.35566" lon="0.09079">
        <ele>854</ele>
        <time>2015-09-22T11:08:40Z</time>
      </trkpt>
      <trkpt lat="42.3557" lon="0.09079">
        <ele>854</ele>
        <time>2015-09-22T11:08:41Z</time>
      </trkpt>
      <trkpt lat="42.35573" lon="0.09079">
        <ele>853.9</ele>
        <time>2015-09-22T11:08:42Z</time>
      </trkpt>
      <trkpt lat="42.35576" lon="0.09079">
        <ele>853.8</ele>
        <time>2015-09-22T11:08:43Z</time>
      </trkpt>
      <trkpt lat="42.35579" lon="0.09078">
        <ele>853.8</ele>
        <time>2015-09-22T11:08:44Z</time>
      </trkpt>
      <trkpt lat="42.35583" lon="0.09078">
        <ele>853.7</ele>
        <time>2015-09-22T11:08:45Z</time>
      </trkpt>
      <trkpt lat="42.35586" lon="0.09077">
        <ele>853.7</ele>
        <time>2015-09-22T11:08:46Z</time>
      </trkpt>
      <trkpt lat="42.35589" lon="0.09076">
        <ele>853.6</ele>
        <time>2015-09-22T11:08:47Z</time>
      </trkpt>
      <trkpt lat="42.35591" lon="0.09076">
        <ele>853.6</ele>
        <time>2015-09-22T11:08:48Z</time>
      </trkpt>
      <trkpt lat="42.35595" lon="0.09076">
        <ele>853.5</ele>
        <time>2015-09-22T11:08:49Z</time>
      </trkpt>
      <trkpt lat="42.35598" lon="0.09077">
        <ele>853.5</ele>
        <time>2015-09-22T11:08:50Z</time>
      </trkpt>
      <trkpt lat="42.35601" lon="0.09076">
        <ele>853.4</ele>
        <time>2015-09-22T11:08:51Z</time>
      </trkpt>
      <trkpt lat="42.35606" lon="0.09078">
        <ele>853.3</ele>
        <time>2015-09-22T11:08:52Z</time>
      </trkpt>
      <trkpt lat="42.3561" lon="0.09079">
        <ele>853.3</ele>
        <time>2015-09-22T11:08:53Z</time>
      </trkpt>
      <trkpt lat="42.35614" lon="0.09079">
        <ele>853.2</ele>
        <time>2015-09-22T11:08:54Z</time>
      </trkpt>
      <trkpt lat="42.35618" lon="0.0908">
        <ele>853.1</ele>
        <time>2015-09-22T11:08:55Z</time>
      </trkpt>
      <trkpt lat="42.35622" lon="0.09081">
        <ele>853.1</ele>
        <time>2015-09-22T11:08:56Z</time>
      </trkpt>
      <trkpt lat="42.35626" lon="0.09083">
        <ele>853</ele>
        <time>2015-09-22T11:08:57Z</time>
      </trkpt>
      <trkpt lat="42.35629" lon="0.09084">
        <ele>852.9</ele>
        <time>2015-09-22T11:08:58Z</time>
      </trkpt>
      <trkpt lat="42.35632" lon="0.09085">
        <ele>852.7</ele>
        <time>2015-09-22T11:08:59Z</time>
      </trkpt>
      <trkpt lat="42.35636" lon="0.09086">
        <ele>852.6</ele>
        <time>2015-09-22T11:09:00Z</time>
      </trkpt>
      <trkpt lat="42.35639" lon="0.09087">
        <ele>852.5</ele>
        <time>2015-09-22T11:09:01Z</time>
      </trkpt>
      <trkpt lat="42.35642" lon="0.09088">
        <ele>852.4</ele>
        <time>2015-09-22T11:09:02Z</time>
      </trkpt>
      <trkpt lat="42.35646" lon="0.0909">
        <ele>852.3</ele>
        <time>2015-09-22T11:09:03Z</time>
      </trkpt>
      <trkpt lat="42.35649" lon="0.09091">
        <ele>852.2</ele>
        <time>2015-09-22T11:09:04Z</time>
      </trkpt>
      <trkpt lat="42.35652" lon="0.09093">
        <ele>852.1</ele>
        <time>2015-09-22T11:09:05Z</time>
      </trkpt>
      <trkpt lat="42.35656" lon="0.09095">
        <ele>852</ele>
        <time>2015-09-22T11:09:06Z</time>
      </trkpt>
      <trkpt lat="42.35659" lon="0.09098">
        <ele>851.9</ele>
        <time>2015-09-22T11:09:07Z</time>
      </trkpt>
      <trkpt lat="42.35663" lon="0.09103">
        <ele>851.8</ele>
        <time>2015-09-22T11:09:08Z</time>
      </trkpt>
      <trkpt lat="42.35665" lon="0.09112">
        <ele>851.9</ele>
        <time>2015-09-22T11:09:09Z</time>
      </trkpt>
      <trkpt lat="42.35665" lon="0.09118">
        <ele>851.9</ele>
        <time>2015-09-22T11:09:10Z</time>
      </trkpt>
      <trkpt lat="42.35664" lon="0.09125">
        <ele>852.1</ele>
        <time>2015-09-22T11:09:11Z</time>
      </trkpt>
      <trkpt lat="42.35664" lon="0.09131">
        <ele>852.4</ele>
        <time>2015-09-22T11:09:12Z</time>
      </trkpt>
      <trkpt lat="42.35661" lon="0.09134">
        <ele>852.6</ele>
        <time>2015-09-22T11:09:13Z</time>
      </trkpt>
      <trkpt lat="42.35659" lon="0.09137">
        <ele>852.8</ele>
        <time>2015-09-22T11:09:14Z</time>
      </trkpt>
      <trkpt lat="42.35656" lon="0.0914">
        <ele>853</ele>
        <time>2015-09-22T11:09:15Z</time>
      </trkpt>
      <trkpt lat="42.35653" lon="0.09143">
        <ele>853.3</ele>
        <time>2015-09-22T11:09:16Z</time>
      </trkpt>
      <trkpt lat="42.35651" lon="0.09145">
        <ele>853.5</ele>
        <time>2015-09-22T11:09:17Z</time>
      </trkpt>
      <trkpt lat="42.35648" lon="0.09148">
        <ele>853.7</ele>
        <time>2015-09-22T11:09:18Z</time>
      </trkpt>
      <trkpt lat="42.35645" lon="0.09151">
        <ele>853.9</ele>
        <time>2015-09-22T11:09:19Z</time>
      </trkpt>
      <trkpt lat="42.35642" lon="0.09153">
        <ele>854.1</ele>
        <time>2015-09-22T11:09:20Z</time>
      </trkpt>
      <trkpt lat="42.35639" lon="0.09155">
        <ele>854.3</ele>
        <time>2015-09-22T11:09:21Z</time>
      </trkpt>
      <trkpt lat="42.35637" lon="0.09157">
        <ele>854.5</ele>
        <time>2015-09-22T11:09:22Z</time>
      </trkpt>
      <trkpt lat="42.35634" lon="0.09159">
        <ele>854.8</ele>
        <time>2015-09-22T11:09:23Z</time>
      </trkpt>
      <trkpt lat="42.35631" lon="0.09161">
        <ele>855</ele>
        <time>2015-09-22T11:09:24Z</time>
      </trkpt>
      <trkpt lat="42.35628" lon="0.09163">
        <ele>855.2</ele>
        <time>2015-09-22T11:09:25Z</time>
      </trkpt>
      <trkpt lat="42.35625" lon="0.09165">
        <ele>855.4</ele>
        <time>2015-09-22T11:09:26Z</time>
      </trkpt>
      <trkpt lat="42.35623" lon="0.09167">
        <ele>855.5</ele>
        <time>2015-09-22T11:09:27Z</time>
      </trkpt>
      <trkpt lat="42.3562" lon="0.09168">
        <ele>855.7</ele>
        <time>2015-09-22T11:09:28Z</time>
      </trkpt>
      <trkpt lat="42.35617" lon="0.09171">
        <ele>855.9</ele>
        <time>2015-09-22T11:09:29Z</time>
      </trkpt>
      <trkpt lat="42.35615" lon="0.09173">
        <ele>856</ele>
        <time>2015-09-22T11:09:30Z</time>
      </trkpt>
      <trkpt lat="42.35613" lon="0.09175">
        <ele>856.2</ele>
        <time>2015-09-22T11:09:31Z</time>
      </trkpt>
      <trkpt lat="42.3561" lon="0.09177">
        <ele>856.4</ele>
        <time>2015-09-22T11:09:32Z</time>
      </trkpt>
      <trkpt lat="42.35608" lon="0.0918">
        <ele>856.6</ele>
        <time>2015-09-22T11:09:33Z</time>
      </trkpt>
      <trkpt lat="42.35605" lon="0.09182">
        <ele>856.7</ele>
        <time>2015-09-22T11:09:34Z</time>
      </trkpt>
      <trkpt lat="42.35603" lon="0.09184">
        <ele>856.9</ele>
        <time>2015-09-22T11:09:35Z</time>
      </trkpt>
      <trkpt lat="42.35601" lon="0.09187">
        <ele>857.1</ele>
        <time>2015-09-22T11:09:36Z</time>
      </trkpt>
      <trkpt lat="42.35599" lon="0.0919">
        <ele>857.3</ele>
        <time>2015-09-22T11:09:37Z</time>
      </trkpt>
      <trkpt lat="42.35597" lon="0.09193">
        <ele>857.4</ele>
        <time>2015-09-22T11:09:38Z</time>
      </trkpt>
      <trkpt lat="42.35595" lon="0.09195">
        <ele>857.6</ele>
        <time>2015-09-22T11:09:39Z</time>
      </trkpt>
      <trkpt lat="42.35593" lon="0.09198">
        <ele>857.8</ele>
        <time>2015-09-22T11:09:40Z</time>
      </trkpt>
      <trkpt lat="42.35591" lon="0.09201">
        <ele>858</ele>
        <time>2015-09-22T11:09:41Z</time>
      </trkpt>
      <trkpt lat="42.35588" lon="0.09203">
        <ele>858.1</ele>
        <time>2015-09-22T11:09:42Z</time>
      </trkpt>
      <trkpt lat="42.35586" lon="0.09205">
        <ele>858.3</ele>
        <time>2015-09-22T11:09:43Z</time>
      </trkpt>
      <trkpt lat="42.35584" lon="0.09207">
        <ele>858.4</ele>
        <time>2015-09-22T11:09:44Z</time>
      </trkpt>
      <trkpt lat="42.35581" lon="0.09209">
        <ele>858.6</ele>
        <time>2015-09-22T11:09:45Z</time>
      </trkpt>
      <trkpt lat="42.35579" lon="0.09211">
        <ele>858.6</ele>
        <time>2015-09-22T11:09:46Z</time>
      </trkpt>
      <trkpt lat="42.35576" lon="0.09213">
        <ele>858.7</ele>
        <time>2015-09-22T11:09:47Z</time>
      </trkpt>
      <trkpt lat="42.35574" lon="0.09215">
        <ele>858.8</ele>
        <time>2015-09-22T11:09:48Z</time>
      </trkpt>
      <trkpt lat="42.35572" lon="0.09218">
        <ele>858.9</ele>
        <time>2015-09-22T11:09:49Z</time>
      </trkpt>
      <trkpt lat="42.3557" lon="0.09221">
        <ele>859</ele>
        <time>2015-09-22T11:09:50Z</time>
      </trkpt>
      <trkpt lat="42.35569" lon="0.09225">
        <ele>859.1</ele>
        <time>2015-09-22T11:09:51Z</time>
      </trkpt>
      <trkpt lat="42.35567" lon="0.09229">
        <ele>859.3</ele>
        <time>2015-09-22T11:09:52Z</time>
      </trkpt>
      <trkpt lat="42.35566" lon="0.09233">
        <ele>859.4</ele>
        <time>2015-09-22T11:09:53Z</time>
      </trkpt>
      <trkpt lat="42.35565" lon="0.09238">
        <ele>859.5</ele>
        <time>2015-09-22T11:09:54Z</time>
      </trkpt>
      <trkpt lat="42.35564" lon="0.09243">
        <ele>859.7</ele>
        <time>2015-09-22T11:09:55Z</time>
      </trkpt>
      <trkpt lat="42.35563" lon="0.09248">
        <ele>859.8</ele>
        <time>2015-09-22T11:09:56Z</time>
      </trkpt>
      <trkpt lat="42.35562" lon="0.09253">
        <ele>860</ele>
        <time>2015-09-22T11:09:57Z</time>
      </trkpt>
      <trkpt lat="42.35561" lon="0.09259">
        <ele>860.1</ele>
        <time>2015-09-22T11:09:58Z</time>
      </trkpt>
      <trkpt lat="42.3556" lon="0.09264">
        <ele>860.3</ele>
        <time>2015-09-22T11:09:59Z</time>
      </trkpt>
      <trkpt lat="42.35559" lon="0.09269">
        <ele>860.4</ele>
        <time>2015-09-22T11:10:00Z</time>
      </trkpt>
      <trkpt lat="42.35558" lon="0.09275">
        <ele>860.6</ele>
        <time>2015-09-22T11:10:01Z</time>
      </trkpt>
      <trkpt lat="42.35557" lon="0.0928">
        <ele>860.7</ele>
        <time>2015-09-22T11:10:02Z</time>
      </trkpt>
      <trkpt lat="42.35556" lon="0.09286">
        <ele>860.9</ele>
        <time>2015-09-22T11:10:03Z</time>
      </trkpt>
      <trkpt lat="42.35555" lon="0.09292">
        <ele>861</ele>
        <time>2015-09-22T11:10:04Z</time>
      </trkpt>
      <trkpt lat="42.35554" lon="0.09298">
        <ele>861.1</ele>
        <time>2015-09-22T11:10:05Z</time>
      </trkpt>
      <trkpt lat="42.35554" lon="0.09303">
        <ele>861.2</ele>
        <time>2015-09-22T11:10:06Z</time>
      </trkpt>
      <trkpt lat="42.35554" lon="0.09309">
        <ele>861.3</ele>
        <time>2015-09-22T11:10:07Z</time>
      </trkpt>
      <trkpt lat="42.35553" lon="0.09314">
        <ele>861.4</ele>
        <time>2015-09-22T11:10:08Z</time>
      </trkpt>
      <trkpt lat="42.35553" lon="0.0932">
        <ele>861.5</ele>
        <time>2015-09-22T11:10:09Z</time>
      </trkpt>
      <trkpt lat="42.35552" lon="0.09325">
        <ele>861.6</ele>
        <time>2015-09-22T11:10:10Z</time>
      </trkpt>
      <trkpt lat="42.35552" lon="0.0933">
        <ele>861.8</ele>
        <time>2015-09-22T11:10:11Z</time>
      </trkpt>
      <trkpt lat="42.35551" lon="0.09335">
        <ele>861.9</ele>
        <time>2015-09-22T11:10:12Z</time>
      </trkpt>
      <trkpt lat="42.35551" lon="0.0934">
        <ele>862</ele>
        <time>2015-09-22T11:10:13Z</time>
      </trkpt>
      <trkpt lat="42.3555" lon="0.09346">
        <ele>862.1</ele>
        <time>2015-09-22T11:10:14Z</time>
      </trkpt>
      <trkpt lat="42.35549" lon="0.09351">
        <ele>862.2</ele>
        <time>2015-09-22T11:10:15Z</time>
      </trkpt>
      <trkpt lat="42.35549" lon="0.09355">
        <ele>862.3</ele>
        <time>2015-09-22T11:10:16Z</time>
      </trkpt>
      <trkpt lat="42.35548" lon="0.09361">
        <ele>862.5</ele>
        <time>2015-09-22T11:10:17Z</time>
      </trkpt>
      <trkpt lat="42.35548" lon="0.09366">
        <ele>862.6</ele>
        <time>2015-09-22T11:10:18Z</time>
      </trkpt>
      <trkpt lat="42.35547" lon="0.09371">
        <ele>862.7</ele>
        <time>2015-09-22T11:10:19Z</time>
      </trkpt>
      <trkpt lat="42.35547" lon="0.09376">
        <ele>862.8</ele>
        <time>2015-09-22T11:10:20Z</time>
      </trkpt>
      <trkpt lat="42.35546" lon="0.09381">
        <ele>863</ele>
        <time>2015-09-22T11:10:21Z</time>
      </trkpt>
      <trkpt lat="42.35546" lon="0.09386">
        <ele>863.2</ele>
        <time>2015-09-22T11:10:22Z</time>
      </trkpt>
      <trkpt lat="42.35546" lon="0.09391">
        <ele>863.4</ele>
        <time>2015-09-22T11:10:23Z</time>
      </trkpt>
      <trkpt lat="42.35545" lon="0.09396">
        <ele>863.6</ele>
        <time>2015-09-22T11:10:24Z</time>
      </trkpt>
      <trkpt lat="42.35545" lon="0.09401">
        <ele>863.8</ele>
        <time>2015-09-22T11:10:25Z</time>
      </trkpt>
      <trkpt lat="42.35545" lon="0.09406">
        <ele>864</ele>
        <time>2015-09-22T11:10:26Z</time>
      </trkpt>
      <trkpt lat="42.35544" lon="0.0941">
        <ele>864.2</ele>
        <time>2015-09-22T11:10:27Z</time>
      </trkpt>
      <trkpt lat="42.35544" lon="0.09415">
        <ele>864.3</ele>
        <time>2015-09-22T11:10:28Z</time>
      </trkpt>
      <trkpt lat="42.35544" lon="0.09419">
        <ele>864.5</ele>
        <time>2015-09-22T11:10:29Z</time>
      </trkpt>
      <trkpt lat="42.35544" lon="0.09423">
        <ele>864.6</ele>
        <time>2015-09-22T11:10:30Z</time>
      </trkpt>
      <trkpt lat="42.35543" lon="0.09427">
        <ele>864.8</ele>
        <time>2015-09-22T11:10:31Z</time>
      </trkpt>
      <trkpt lat="42.35543" lon="0.09431">
        <ele>865</ele>
        <time>2015-09-22T11:10:32Z</time>
      </trkpt>
      <trkpt lat="42.35542" lon="0.09435">
        <ele>865.1</ele>
        <time>2015-09-22T11:10:33Z</time>
      </trkpt>
      <trkpt lat="42.35542" lon="0.09439">
        <ele>865.3</ele>
        <time>2015-09-22T11:10:34Z</time>
      </trkpt>
      <trkpt lat="42.35541" lon="0.09443">
        <ele>865.5</ele>
        <time>2015-09-22T11:10:35Z</time>
      </trkpt>
      <trkpt lat="42.3554" lon="0.09447">
        <ele>865.7</ele>
        <time>2015-09-22T11:10:36Z</time>
      </trkpt>
      <trkpt lat="42.3554" lon="0.09451">
        <ele>865.9</ele>
        <time>2015-09-22T11:10:37Z</time>
      </trkpt>
      <trkpt lat="42.35539" lon="0.09455">
        <ele>866.1</ele>
        <time>2015-09-22T11:10:38Z</time>
      </trkpt>
      <trkpt lat="42.35538" lon="0.09459">
        <ele>866.3</ele>
        <time>2015-09-22T11:10:39Z</time>
      </trkpt>
      <trkpt lat="42.35537" lon="0.09463">
        <ele>866.6</ele>
        <time>2015-09-22T11:10:40Z</time>
      </trkpt>
      <trkpt lat="42.35537" lon="0.09467">
        <ele>866.9</ele>
        <time>2015-09-22T11:10:41Z</time>
      </trkpt>
      <trkpt lat="42.35536" lon="0.09472">
        <ele>867.2</ele>
        <time>2015-09-22T11:10:42Z</time>
      </trkpt>
      <trkpt lat="42.35534" lon="0.09476">
        <ele>867.6</ele>
        <time>2015-09-22T11:10:43Z</time>
      </trkpt>
      <trkpt lat="42.35533" lon="0.0948">
        <ele>867.9</ele>
        <time>2015-09-22T11:10:44Z</time>
      </trkpt>
      <trkpt lat="42.35532" lon="0.09484">
        <ele>868.2</ele>
        <time>2015-09-22T11:10:45Z</time>
      </trkpt>
      <trkpt lat="42.3553" lon="0.09488">
        <ele>868.5</ele>
        <time>2015-09-22T11:10:46Z</time>
      </trkpt>
      <trkpt lat="42.35528" lon="0.09491">
        <ele>868.9</ele>
        <time>2015-09-22T11:10:47Z</time>
      </trkpt>
      <trkpt lat="42.35526" lon="0.09495">
        <ele>869.2</ele>
        <time>2015-09-22T11:10:48Z</time>
      </trkpt>
      <trkpt lat="42.35523" lon="0.09498">
        <ele>869.6</ele>
        <time>2015-09-22T11:10:49Z</time>
      </trkpt>
      <trkpt lat="42.35521" lon="0.09501">
        <ele>869.9</ele>
        <time>2015-09-22T11:10:50Z</time>
      </trkpt>
      <trkpt lat="42.35518" lon="0.09503">
        <ele>870.2</ele>
        <time>2015-09-22T11:10:51Z</time>
      </trkpt>
      <trkpt lat="42.35516" lon="0.09506">
        <ele>870.6</ele>
        <time>2015-09-22T11:10:52Z</time>
      </trkpt>
      <trkpt lat="42.35513" lon="0.09508">
        <ele>870.9</ele>
        <time>2015-09-22T11:10:53Z</time>
      </trkpt>
      <trkpt lat="42.3551" lon="0.09511">
        <ele>871.2</ele>
        <time>2015-09-22T11:10:54Z</time>
      </trkpt>
      <trkpt lat="42.35508" lon="0.09514">
        <ele>871.5</ele>
        <time>2015-09-22T11:10:55Z</time>
      </trkpt>
      <trkpt lat="42.35506" lon="0.09516">
        <ele>871.8</ele>
        <time>2015-09-22T11:10:56Z</time>
      </trkpt>
      <trkpt lat="42.35503" lon="0.09519">
        <ele>872.1</ele>
        <time>2015-09-22T11:10:57Z</time>
      </trkpt>
      <trkpt lat="42.35501" lon="0.09521">
        <ele>872.3</ele>
        <time>2015-09-22T11:10:58Z</time>
      </trkpt>
      <trkpt lat="42.35499" lon="0.09524">
        <ele>872.6</ele>
        <time>2015-09-22T11:10:59Z</time>
      </trkpt>
      <trkpt lat="42.35497" lon="0.09527">
        <ele>872.9</ele>
        <time>2015-09-22T11:11:00Z</time>
      </trkpt>
      <trkpt lat="42.35494" lon="0.09529">
        <ele>873.2</ele>
        <time>2015-09-22T11:11:01Z</time>
      </trkpt>
      <trkpt lat="42.35492" lon="0.09532">
        <ele>873.5</ele>
        <time>2015-09-22T11:11:02Z</time>
      </trkpt>
      <trkpt lat="42.35489" lon="0.09535">
        <ele>873.8</ele>
        <time>2015-09-22T11:11:03Z</time>
      </trkpt>
      <trkpt lat="42.35487" lon="0.09538">
        <ele>874.1</ele>
        <time>2015-09-22T11:11:04Z</time>
      </trkpt>
      <trkpt lat="42.35484" lon="0.09542">
        <ele>874.5</ele>
        <time>2015-09-22T11:11:05Z</time>
      </trkpt>
      <trkpt lat="42.35481" lon="0.09544">
        <ele>874.7</ele>
        <time>2015-09-22T11:11:06Z</time>
      </trkpt>
      <trkpt lat="42.35477" lon="0.09546">
        <ele>874.9</ele>
        <time>2015-09-22T11:11:07Z</time>
      </trkpt>
      <trkpt lat="42.35474" lon="0.09549">
        <ele>875.1</ele>
        <time>2015-09-22T11:11:08Z</time>
      </trkpt>
      <trkpt lat="42.35471" lon="0.09549">
        <ele>875.3</ele>
        <time>2015-09-22T11:11:09Z</time>
      </trkpt>
      <trkpt lat="42.35467" lon="0.0955">
        <ele>875.5</ele>
        <time>2015-09-22T11:11:10Z</time>
      </trkpt>
      <trkpt lat="42.35464" lon="0.09551">
        <ele>875.7</ele>
        <time>2015-09-22T11:11:11Z</time>
      </trkpt>
      <trkpt lat="42.35461" lon="0.09553">
        <ele>875.8</ele>
        <time>2015-09-22T11:11:12Z</time>
      </trkpt>
      <trkpt lat="42.35459" lon="0.09555">
        <ele>876</ele>
        <time>2015-09-22T11:11:13Z</time>
      </trkpt>
      <trkpt lat="42.35455" lon="0.0956">
        <ele>876.1</ele>
        <time>2015-09-22T11:11:15Z</time>
      </trkpt>
      <trkpt lat="42.35456" lon="0.09565">
        <ele>876.1</ele>
        <time>2015-09-22T11:11:16Z</time>
      </trkpt>
      <trkpt lat="42.35455" lon="0.09572">
        <ele>876.2</ele>
        <time>2015-09-22T11:11:18Z</time>
      </trkpt>
      <trkpt lat="42.35457" lon="0.09577">
        <ele>876.1</ele>
        <time>2015-09-22T11:11:20Z</time>
      </trkpt>
      <trkpt lat="42.35458" lon="0.09582">
        <ele>876</ele>
        <time>2015-09-22T11:11:22Z</time>
      </trkpt>
      <trkpt lat="42.3546" lon="0.09589">
        <ele>875.9</ele>
        <time>2015-09-22T11:11:24Z</time>
      </trkpt>
      <trkpt lat="42.35462" lon="0.09593">
        <ele>875.9</ele>
        <time>2015-09-22T11:11:25Z</time>
      </trkpt>
      <trkpt lat="42.35464" lon="0.09597">
        <ele>875.8</ele>
        <time>2015-09-22T11:11:26Z</time>
      </trkpt>
      <trkpt lat="42.35465" lon="0.09601">
        <ele>875.8</ele>
        <time>2015-09-22T11:11:27Z</time>
      </trkpt>
      <trkpt lat="42.35466" lon="0.09605">
        <ele>875.7</ele>
        <time>2015-09-22T11:11:29Z</time>
      </trkpt>
      <trkpt lat="42.35468" lon="0.09609">
        <ele>875.7</ele>
        <time>2015-09-22T11:13:47Z</time>
      </trkpt>
      <trkpt lat="42.3547" lon="0.09614">
        <ele>875.7</ele>
        <time>2015-09-22T11:13:49Z</time>
      </trkpt>
      <trkpt lat="42.35473" lon="0.0962">
        <ele>875.6</ele>
        <time>2015-09-22T11:13:51Z</time>
      </trkpt>
      <trkpt lat="42.35476" lon="0.09626">
        <ele>875.6</ele>
        <time>2015-09-22T11:13:53Z</time>
      </trkpt>
      <trkpt lat="42.35477" lon="0.0963">
        <ele>875.6</ele>
        <time>2015-09-22T11:13:54Z</time>
      </trkpt>
      <trkpt lat="42.35479" lon="0.09635">
        <ele>875.6</ele>
        <time>2015-09-22T11:13:55Z</time>
      </trkpt>
      <trkpt lat="42.35481" lon="0.09639">
        <ele>875.6</ele>
        <time>2015-09-22T11:13:56Z</time>
      </trkpt>
      <trkpt lat="42.35483" lon="0.09643">
        <ele>875.6</ele>
        <time>2015-09-22T11:13:57Z</time>
      </trkpt>
      <trkpt lat="42.35485" lon="0.09647">
        <ele>875.6</ele>
        <time>2015-09-22T11:13:58Z</time>
      </trkpt>
      <trkpt lat="42.35487" lon="0.09651">
        <ele>875.6</ele>
        <time>2015-09-22T11:13:59Z</time>
      </trkpt>
      <trkpt lat="42.35489" lon="0.09655">
        <ele>875.6</ele>
        <time>2015-09-22T11:14:00Z</time>
      </trkpt>
      <trkpt lat="42.35491" lon="0.0966">
        <ele>875.6</ele>
        <time>2015-09-22T11:14:01Z</time>
      </trkpt>
      <trkpt lat="42.35492" lon="0.09664">
        <ele>875.6</ele>
        <time>2015-09-22T11:14:02Z</time>
      </trkpt>
      <trkpt lat="42.35494" lon="0.09669">
        <ele>875.5</ele>
        <time>2015-09-22T11:14:03Z</time>
      </trkpt>
      <trkpt lat="42.35496" lon="0.09673">
        <ele>875.5</ele>
        <time>2015-09-22T11:14:04Z</time>
      </trkpt>
      <trkpt lat="42.35498" lon="0.09678">
        <ele>875.4</ele>
        <time>2015-09-22T11:14:05Z</time>
      </trkpt>
      <trkpt lat="42.355" lon="0.09682">
        <ele>875.3</ele>
        <time>2015-09-22T11:14:06Z</time>
      </trkpt>
      <trkpt lat="42.35503" lon="0.09686">
        <ele>875.2</ele>
        <time>2015-09-22T11:14:07Z</time>
      </trkpt>
      <trkpt lat="42.35505" lon="0.09691">
        <ele>875.1</ele>
        <time>2015-09-22T11:14:08Z</time>
      </trkpt>
      <trkpt lat="42.35507" lon="0.09695">
        <ele>875.1</ele>
        <time>2015-09-22T11:14:09Z</time>
      </trkpt>
      <trkpt lat="42.35509" lon="0.09699">
        <ele>874.9</ele>
        <time>2015-09-22T11:14:10Z</time>
      </trkpt>
      <trkpt lat="42.35511" lon="0.09704">
        <ele>874.8</ele>
        <time>2015-09-22T11:14:11Z</time>
      </trkpt>
      <trkpt lat="42.35514" lon="0.09709">
        <ele>874.7</ele>
        <time>2015-09-22T11:14:12Z</time>
      </trkpt>
      <trkpt lat="42.35516" lon="0.09713">
        <ele>874.7</ele>
        <time>2015-09-22T11:14:13Z</time>
      </trkpt>
      <trkpt lat="42.35518" lon="0.09718">
        <ele>874.7</ele>
        <time>2015-09-22T11:14:14Z</time>
      </trkpt>
      <trkpt lat="42.3552" lon="0.09723">
        <ele>874.7</ele>
        <time>2015-09-22T11:14:15Z</time>
      </trkpt>
      <trkpt lat="42.35521" lon="0.09727">
        <ele>874.7</ele>
        <time>2015-09-22T11:14:16Z</time>
      </trkpt>
      <trkpt lat="42.35523" lon="0.09732">
        <ele>874.7</ele>
        <time>2015-09-22T11:14:17Z</time>
      </trkpt>
      <trkpt lat="42.35525" lon="0.09736">
        <ele>874.7</ele>
        <time>2015-09-22T11:14:18Z</time>
      </trkpt>
      <trkpt lat="42.35527" lon="0.09741">
        <ele>874.7</ele>
        <time>2015-09-22T11:14:19Z</time>
      </trkpt>
      <trkpt lat="42.35529" lon="0.09745">
        <ele>874.7</ele>
        <time>2015-09-22T11:14:20Z</time>
      </trkpt>
      <trkpt lat="42.3553" lon="0.0975">
        <ele>874.8</ele>
        <time>2015-09-22T11:14:21Z</time>
      </trkpt>
      <trkpt lat="42.35532" lon="0.09755">
        <ele>874.8</ele>
        <time>2015-09-22T11:14:22Z</time>
      </trkpt>
      <trkpt lat="42.35534" lon="0.09759">
        <ele>874.8</ele>
        <time>2015-09-22T11:14:23Z</time>
      </trkpt>
      <trkpt lat="42.35535" lon="0.09764">
        <ele>874.8</ele>
        <time>2015-09-22T11:14:24Z</time>
      </trkpt>
      <trkpt lat="42.35536" lon="0.0977">
        <ele>874.9</ele>
        <time>2015-09-22T11:14:25Z</time>
      </trkpt>
      <trkpt lat="42.35536" lon="0.09775">
        <ele>875</ele>
        <time>2015-09-22T11:14:26Z</time>
      </trkpt>
      <trkpt lat="42.35535" lon="0.0978">
        <ele>875.2</ele>
        <time>2015-09-22T11:14:27Z</time>
      </trkpt>
      <trkpt lat="42.35534" lon="0.09786">
        <ele>875.4</ele>
        <time>2015-09-22T11:14:28Z</time>
      </trkpt>
      <trkpt lat="42.35533" lon="0.09792">
        <ele>875.6</ele>
        <time>2015-09-22T11:14:29Z</time>
      </trkpt>
      <trkpt lat="42.35533" lon="0.09798">
        <ele>875.8</ele>
        <time>2015-09-22T11:14:30Z</time>
      </trkpt>
      <trkpt lat="42.35532" lon="0.09804">
        <ele>876</ele>
        <time>2015-09-22T11:14:31Z</time>
      </trkpt>
      <trkpt lat="42.35533" lon="0.09812">
        <ele>876.1</ele>
        <time>2015-09-22T11:14:32Z</time>
      </trkpt>
      <trkpt lat="42.35536" lon="0.09817">
        <ele>876</ele>
        <time>2015-09-22T11:14:33Z</time>
      </trkpt>
      <trkpt lat="42.35539" lon="0.09821">
        <ele>875.9</ele>
        <time>2015-09-22T11:14:34Z</time>
      </trkpt>
      <trkpt lat="42.35542" lon="0.09827">
        <ele>875.8</ele>
        <time>2015-09-22T11:14:35Z</time>
      </trkpt>
      <trkpt lat="42.35545" lon="0.09831">
        <ele>875.9</ele>
        <time>2015-09-22T11:14:36Z</time>
      </trkpt>
      <trkpt lat="42.35547" lon="0.09835">
        <ele>875.9</ele>
        <time>2015-09-22T11:14:37Z</time>
      </trkpt>
      <trkpt lat="42.3555" lon="0.0984">
        <ele>875.9</ele>
        <time>2015-09-22T11:14:38Z</time>
      </trkpt>
      <trkpt lat="42.3555" lon="0.09846">
        <ele>876</ele>
        <time>2015-09-22T11:14:39Z</time>
      </trkpt>
      <trkpt lat="42.3555" lon="0.09851">
        <ele>876.2</ele>
        <time>2015-09-22T11:14:40Z</time>
      </trkpt>
      <trkpt lat="42.35551" lon="0.09857">
        <ele>876.3</ele>
        <time>2015-09-22T11:14:41Z</time>
      </trkpt>
      <trkpt lat="42.35551" lon="0.09861">
        <ele>876.3</ele>
        <time>2015-09-22T11:14:42Z</time>
      </trkpt>
      <trkpt lat="42.35551" lon="0.09867">
        <ele>876.5</ele>
        <time>2015-09-22T11:14:43Z</time>
      </trkpt>
      <trkpt lat="42.3555" lon="0.09871">
        <ele>876.6</ele>
        <time>2015-09-22T11:14:44Z</time>
      </trkpt>
      <trkpt lat="42.35549" lon="0.09876">
        <ele>876.8</ele>
        <time>2015-09-22T11:14:45Z</time>
      </trkpt>
      <trkpt lat="42.35547" lon="0.0988">
        <ele>877</ele>
        <time>2015-09-22T11:14:46Z</time>
      </trkpt>
      <trkpt lat="42.35544" lon="0.09883">
        <ele>877.2</ele>
        <time>2015-09-22T11:14:47Z</time>
      </trkpt>
      <trkpt lat="42.35542" lon="0.09887">
        <ele>877.4</ele>
        <time>2015-09-22T11:14:48Z</time>
      </trkpt>
      <trkpt lat="42.3554" lon="0.09891">
        <ele>877.7</ele>
        <time>2015-09-22T11:14:49Z</time>
      </trkpt>
      <trkpt lat="42.35538" lon="0.09895">
        <ele>877.9</ele>
        <time>2015-09-22T11:14:50Z</time>
      </trkpt>
      <trkpt lat="42.35536" lon="0.09901">
        <ele>878.2</ele>
        <time>2015-09-22T11:14:51Z</time>
      </trkpt>
      <trkpt lat="42.35534" lon="0.09906">
        <ele>878.5</ele>
        <time>2015-09-22T11:14:52Z</time>
      </trkpt>
      <trkpt lat="42.35533" lon="0.09912">
        <ele>878.7</ele>
        <time>2015-09-22T11:14:53Z</time>
      </trkpt>
      <trkpt lat="42.35531" lon="0.09917">
        <ele>879</ele>
        <time>2015-09-22T11:14:54Z</time>
      </trkpt>
      <trkpt lat="42.35529" lon="0.09922">
        <ele>879.2</ele>
        <time>2015-09-22T11:14:55Z</time>
      </trkpt>
      <trkpt lat="42.35528" lon="0.09928">
        <ele>879.4</ele>
        <time>2015-09-22T11:14:56Z</time>
      </trkpt>
      <trkpt lat="42.35526" lon="0.09933">
        <ele>879.6</ele>
        <time>2015-09-22T11:14:57Z</time>
      </trkpt>
      <trkpt lat="42.35525" lon="0.09938">
        <ele>879.8</ele>
        <time>2015-09-22T11:14:58Z</time>
      </trkpt>
      <trkpt lat="42.35523" lon="0.09943">
        <ele>880</ele>
        <time>2015-09-22T11:14:59Z</time>
      </trkpt>
      <trkpt lat="42.35522" lon="0.09948">
        <ele>880.2</ele>
        <time>2015-09-22T11:15:00Z</time>
      </trkpt>
      <trkpt lat="42.3552" lon="0.09953">
        <ele>880.4</ele>
        <time>2015-09-22T11:15:01Z</time>
      </trkpt>
      <trkpt lat="42.35519" lon="0.09958">
        <ele>880.5</ele>
        <time>2015-09-22T11:15:02Z</time>
      </trkpt>
      <trkpt lat="42.35518" lon="0.09963">
        <ele>880.6</ele>
        <time>2015-09-22T11:15:03Z</time>
      </trkpt>
      <trkpt lat="42.35517" lon="0.09968">
        <ele>880.7</ele>
        <time>2015-09-22T11:15:04Z</time>
      </trkpt>
      <trkpt lat="42.35517" lon="0.09973">
        <ele>880.7</ele>
        <time>2015-09-22T11:15:05Z</time>
      </trkpt>
      <trkpt lat="42.35517" lon="0.09979">
        <ele>880.8</ele>
        <time>2015-09-22T11:15:06Z</time>
      </trkpt>
      <trkpt lat="42.35517" lon="0.09984">
        <ele>880.8</ele>
        <time>2015-09-22T11:15:07Z</time>
      </trkpt>
      <trkpt lat="42.35516" lon="0.09989">
        <ele>880.9</ele>
        <time>2015-09-22T11:15:08Z</time>
      </trkpt>
      <trkpt lat="42.35516" lon="0.09994">
        <ele>880.9</ele>
        <time>2015-09-22T11:15:09Z</time>
      </trkpt>
      <trkpt lat="42.35515" lon="0.09999">
        <ele>881</ele>
        <time>2015-09-22T11:15:10Z</time>
      </trkpt>
      <trkpt lat="42.35515" lon="0.10004">
        <ele>881</ele>
        <time>2015-09-22T11:15:11Z</time>
      </trkpt>
      <trkpt lat="42.35514" lon="0.10009">
        <ele>881.1</ele>
        <time>2015-09-22T11:15:12Z</time>
      </trkpt>
      <trkpt lat="42.35513" lon="0.10014">
        <ele>881.1</ele>
        <time>2015-09-22T11:15:13Z</time>
      </trkpt>
      <trkpt lat="42.35513" lon="0.10019">
        <ele>881.2</ele>
        <time>2015-09-22T11:15:14Z</time>
      </trkpt>
      <trkpt lat="42.35512" lon="0.10023">
        <ele>881.2</ele>
        <time>2015-09-22T11:15:15Z</time>
      </trkpt>
      <trkpt lat="42.35512" lon="0.10028">
        <ele>881.3</ele>
        <time>2015-09-22T11:15:16Z</time>
      </trkpt>
      <trkpt lat="42.35511" lon="0.10033">
        <ele>881.3</ele>
        <time>2015-09-22T11:15:17Z</time>
      </trkpt>
      <trkpt lat="42.35511" lon="0.10037">
        <ele>881.3</ele>
        <time>2015-09-22T11:15:18Z</time>
      </trkpt>
      <trkpt lat="42.35511" lon="0.10041">
        <ele>881.4</ele>
        <time>2015-09-22T11:15:19Z</time>
      </trkpt>
      <trkpt lat="42.3551" lon="0.10045">
        <ele>881</ele>
        <time>2015-09-22T11:15:20Z</time>
      </trkpt>
      <trkpt lat="42.35506" lon="0.10048">
        <ele>880.7</ele>
        <time>2015-09-22T11:15:22Z</time>
      </trkpt>
      <trkpt lat="42.35502" lon="0.10051">
        <ele>880.5</ele>
        <time>2015-09-22T11:15:24Z</time>
      </trkpt>
      <trkpt lat="42.35499" lon="0.1005">
        <ele>880.5</ele>
        <time>2015-09-22T11:15:25Z</time>
      </trkpt>
      <trkpt lat="42.35494" lon="0.10052">
        <ele>880.3</ele>
        <time>2015-09-22T11:15:27Z</time>
      </trkpt>
      <trkpt lat="42.35492" lon="0.10053">
        <ele>880.2</ele>
        <time>2015-09-22T11:15:28Z</time>
      </trkpt>
      <trkpt lat="42.35488" lon="0.10054">
        <ele>880.1</ele>
        <time>2015-09-22T11:15:29Z</time>
      </trkpt>
      <trkpt lat="42.35484" lon="0.10054">
        <ele>880.1</ele>
        <time>2015-09-22T11:15:30Z</time>
      </trkpt>
      <trkpt lat="42.35481" lon="0.10054">
        <ele>880.1</ele>
        <time>2015-09-22T11:15:31Z</time>
      </trkpt>
      <trkpt lat="42.35478" lon="0.10053">
        <ele>880.2</ele>
        <time>2015-09-22T11:15:32Z</time>
      </trkpt>
      <trkpt lat="42.35475" lon="0.10053">
        <ele>880.2</ele>
        <time>2015-09-22T11:15:33Z</time>
      </trkpt>
      <trkpt lat="42.35472" lon="0.10053">
        <ele>880.3</ele>
        <time>2015-09-22T11:15:34Z</time>
      </trkpt>
      <trkpt lat="42.35469" lon="0.10053">
        <ele>880.3</ele>
        <time>2015-09-22T11:15:35Z</time>
      </trkpt>
      <trkpt lat="42.35466" lon="0.10053">
        <ele>880.3</ele>
        <time>2015-09-22T11:15:36Z</time>
      </trkpt>
      <trkpt lat="42.35461" lon="0.10052">
        <ele>880.4</ele>
        <time>2015-09-22T11:15:38Z</time>
      </trkpt>
      <trkpt lat="42.35457" lon="0.10052">
        <ele>880.3</ele>
        <time>2015-09-22T11:15:40Z</time>
      </trkpt>
      <trkpt lat="42.35453" lon="0.10051">
        <ele>880.4</ele>
        <time>2015-09-22T11:15:42Z</time>
      </trkpt>
      <trkpt lat="42.35448" lon="0.10051">
        <ele>880.2</ele>
        <time>2015-09-22T11:15:44Z</time>
      </trkpt>
      <trkpt lat="42.35444" lon="0.10053">
        <ele>879.8</ele>
        <time>2015-09-22T11:15:45Z</time>
      </trkpt>
      <trkpt lat="42.3544" lon="0.10053">
        <ele>879.7</ele>
        <time>2015-09-22T11:15:46Z</time>
      </trkpt>
      <trkpt lat="42.35436" lon="0.10053">
        <ele>879.6</ele>
        <time>2015-09-22T11:15:47Z</time>
      </trkpt>
      <trkpt lat="42.35432" lon="0.10052">
        <ele>879.6</ele>
        <time>2015-09-22T11:15:48Z</time>
      </trkpt>
      <trkpt lat="42.35427" lon="0.10052">
        <ele>879.5</ele>
        <time>2015-09-22T11:15:49Z</time>
      </trkpt>
      <trkpt lat="42.35421" lon="0.10052">
        <ele>879.3</ele>
        <time>2015-09-22T11:15:50Z</time>
      </trkpt>
      <trkpt lat="42.35415" lon="0.10051">
        <ele>879.2</ele>
        <time>2015-09-22T11:15:51Z</time>
      </trkpt>
      <trkpt lat="42.3541" lon="0.10051">
        <ele>879.1</ele>
        <time>2015-09-22T11:15:52Z</time>
      </trkpt>
      <trkpt lat="42.35406" lon="0.1005">
        <ele>879.1</ele>
        <time>2015-09-22T11:15:53Z</time>
      </trkpt>
      <trkpt lat="42.35402" lon="0.10049">
        <ele>879</ele>
        <time>2015-09-22T11:15:54Z</time>
      </trkpt>
      <trkpt lat="42.35398" lon="0.10049">
        <ele>878.9</ele>
        <time>2015-09-22T11:15:55Z</time>
      </trkpt>
      <trkpt lat="42.35395" lon="0.10051">
        <ele>878.6</ele>
        <time>2015-09-22T11:15:56Z</time>
      </trkpt>
      <trkpt lat="42.35392" lon="0.10053">
        <ele>878.3</ele>
        <time>2015-09-22T11:15:57Z</time>
      </trkpt>
      <trkpt lat="42.35387" lon="0.10054">
        <ele>878.1</ele>
        <time>2015-09-22T11:15:58Z</time>
      </trkpt>
      <trkpt lat="42.35384" lon="0.10054">
        <ele>878</ele>
        <time>2015-09-22T11:15:59Z</time>
      </trkpt>
      <trkpt lat="42.3538" lon="0.10055">
        <ele>877.8</ele>
        <time>2015-09-22T11:16:00Z</time>
      </trkpt>
      <trkpt lat="42.35377" lon="0.10056">
        <ele>877.5</ele>
        <time>2015-09-22T11:16:01Z</time>
      </trkpt>
      <trkpt lat="42.35374" lon="0.10058">
        <ele>877</ele>
        <time>2015-09-22T11:16:02Z</time>
      </trkpt>
      <trkpt lat="42.35369" lon="0.10062">
        <ele>875.9</ele>
        <time>2015-09-22T11:16:03Z</time>
      </trkpt>
      <trkpt lat="42.35365" lon="0.10065">
        <ele>875</ele>
        <time>2015-09-22T11:16:04Z</time>
      </trkpt>
      <trkpt lat="42.35359" lon="0.1007">
        <ele>873.9</ele>
        <time>2015-09-22T11:16:05Z</time>
      </trkpt>
      <trkpt lat="42.35355" lon="0.10072">
        <ele>873.1</ele>
        <time>2015-09-22T11:16:06Z</time>
      </trkpt>
      <trkpt lat="42.35351" lon="0.10074">
        <ele>872.3</ele>
        <time>2015-09-22T11:16:07Z</time>
      </trkpt>
      <trkpt lat="42.35347" lon="0.10075">
        <ele>871.8</ele>
        <time>2015-09-22T11:16:08Z</time>
      </trkpt>
      <trkpt lat="42.35344" lon="0.10075">
        <ele>871.4</ele>
        <time>2015-09-22T11:16:09Z</time>
      </trkpt>
      <trkpt lat="42.3534" lon="0.10074">
        <ele>871</ele>
        <time>2015-09-22T11:16:10Z</time>
      </trkpt>
      <trkpt lat="42.35337" lon="0.10071">
        <ele>870.8</ele>
        <time>2015-09-22T11:16:11Z</time>
      </trkpt>
      <trkpt lat="42.35335" lon="0.10069">
        <ele>870.5</ele>
        <time>2015-09-22T11:16:12Z</time>
      </trkpt>
      <trkpt lat="42.35332" lon="0.10068">
        <ele>870.2</ele>
        <time>2015-09-22T11:16:13Z</time>
      </trkpt>
      <trkpt lat="42.35328" lon="0.10063">
        <ele>869.9</ele>
        <time>2015-09-22T11:16:15Z</time>
      </trkpt>
      <trkpt lat="42.35326" lon="0.10058">
        <ele>869.7</ele>
        <time>2015-09-22T11:16:17Z</time>
      </trkpt>
      <trkpt lat="42.35324" lon="0.10055">
        <ele>869.4</ele>
        <time>2015-09-22T11:16:19Z</time>
      </trkpt>
      <trkpt lat="42.3532" lon="0.10053">
        <ele>868.8</ele>
        <time>2015-09-22T11:16:21Z</time>
      </trkpt>
      <trkpt lat="42.35317" lon="0.10051">
        <ele>868.4</ele>
        <time>2015-09-22T11:16:22Z</time>
      </trkpt>
      <trkpt lat="42.35314" lon="0.10049">
        <ele>868</ele>
        <time>2015-09-22T11:16:23Z</time>
      </trkpt>
      <trkpt lat="42.35313" lon="0.10046">
        <ele>867.7</ele>
        <time>2015-09-22T11:16:24Z</time>
      </trkpt>
      <trkpt lat="42.35311" lon="0.10043">
        <ele>867.5</ele>
        <time>2015-09-22T11:16:25Z</time>
      </trkpt>
      <trkpt lat="42.35311" lon="0.10039">
        <ele>867.5</ele>
        <time>2015-09-22T11:16:26Z</time>
      </trkpt>
      <trkpt lat="42.3531" lon="0.10034">
        <ele>867.6</ele>
        <time>2015-09-22T11:16:27Z</time>
      </trkpt>
      <trkpt lat="42.35309" lon="0.1003">
        <ele>867.7</ele>
        <time>2015-09-22T11:16:28Z</time>
      </trkpt>
      <trkpt lat="42.35308" lon="0.10024">
        <ele>867.7</ele>
        <time>2015-09-22T11:16:29Z</time>
      </trkpt>
      <trkpt lat="42.35308" lon="0.1002">
        <ele>867.8</ele>
        <time>2015-09-22T11:16:30Z</time>
      </trkpt>
      <trkpt lat="42.35307" lon="0.10014">
        <ele>867.9</ele>
        <time>2015-09-22T11:16:31Z</time>
      </trkpt>
      <trkpt lat="42.35307" lon="0.10009">
        <ele>868.1</ele>
        <time>2015-09-22T11:16:32Z</time>
      </trkpt>
      <trkpt lat="42.35306" lon="0.10004">
        <ele>868.2</ele>
        <time>2015-09-22T11:16:33Z</time>
      </trkpt>
      <trkpt lat="42.35305" lon="0.09999">
        <ele>868.3</ele>
        <time>2015-09-22T11:16:34Z</time>
      </trkpt>
      <trkpt lat="42.35304" lon="0.09993">
        <ele>868.3</ele>
        <time>2015-09-22T11:16:35Z</time>
      </trkpt>
      <trkpt lat="42.35302" lon="0.09988">
        <ele>868.3</ele>
        <time>2015-09-22T11:16:36Z</time>
      </trkpt>
      <trkpt lat="42.35301" lon="0.09983">
        <ele>868.3</ele>
        <time>2015-09-22T11:16:37Z</time>
      </trkpt>
      <trkpt lat="42.353" lon="0.09979">
        <ele>868.4</ele>
        <time>2015-09-22T11:16:38Z</time>
      </trkpt>
      <trkpt lat="42.35295" lon="0.09976">
        <ele>867.7</ele>
        <time>2015-09-22T11:16:40Z</time>
      </trkpt>
      <trkpt lat="42.35292" lon="0.09977">
        <ele>867.1</ele>
        <time>2015-09-22T11:16:41Z</time>
      </trkpt>
      <trkpt lat="42.35289" lon="0.09976">
        <ele>867</ele>
        <time>2015-09-22T11:16:42Z</time>
      </trkpt>
      <trkpt lat="42.35286" lon="0.09975">
        <ele>866.8</ele>
        <time>2015-09-22T11:16:43Z</time>
      </trkpt>
      <trkpt lat="42.35284" lon="0.09974">
        <ele>866.7</ele>
        <time>2015-09-22T11:16:44Z</time>
      </trkpt>
      <trkpt lat="42.35282" lon="0.09971">
        <ele>866.7</ele>
        <time>2015-09-22T11:16:45Z</time>
      </trkpt>
      <trkpt lat="42.35281" lon="0.09967">
        <ele>866.8</ele>
        <time>2015-09-22T11:16:46Z</time>
      </trkpt>
      <trkpt lat="42.35281" lon="0.09963">
        <ele>867</ele>
        <time>2015-09-22T11:16:47Z</time>
      </trkpt>
      <trkpt lat="42.35281" lon="0.09958">
        <ele>867.2</ele>
        <time>2015-09-22T11:16:48Z</time>
      </trkpt>
      <trkpt lat="42.3528" lon="0.0995">
        <ele>867.4</ele>
        <time>2015-09-22T11:16:49Z</time>
      </trkpt>
      <trkpt lat="42.35281" lon="0.09955">
        <ele>867.3</ele>
        <time>2015-09-22T11:17:01Z</time>
      </trkpt>
      <trkpt lat="42.35277" lon="0.09952">
        <ele>867.1</ele>
        <time>2015-09-22T11:17:30Z</time>
      </trkpt>
      <trkpt lat="42.35272" lon="0.09953">
        <ele>866.7</ele>
        <time>2015-09-22T11:17:32Z</time>
      </trkpt>
      <trkpt lat="42.35267" lon="0.09955">
        <ele>866.3</ele>
        <time>2015-09-22T11:17:34Z</time>
      </trkpt>
      <trkpt lat="42.35264" lon="0.09956">
        <ele>866.1</ele>
        <time>2015-09-22T11:17:35Z</time>
      </trkpt>
      <trkpt lat="42.3526" lon="0.09958">
        <ele>865.7</ele>
        <time>2015-09-22T11:17:36Z</time>
      </trkpt>
      <trkpt lat="42.35256" lon="0.0996">
        <ele>865.3</ele>
        <time>2015-09-22T11:17:37Z</time>
      </trkpt>
      <trkpt lat="42.35252" lon="0.09963">
        <ele>864.9</ele>
        <time>2015-09-22T11:17:38Z</time>
      </trkpt>
      <trkpt lat="42.35248" lon="0.09966">
        <ele>864.5</ele>
        <time>2015-09-22T11:17:39Z</time>
      </trkpt>
      <trkpt lat="42.35243" lon="0.09969">
        <ele>864</ele>
        <time>2015-09-22T11:17:40Z</time>
      </trkpt>
      <trkpt lat="42.3524" lon="0.0997">
        <ele>863.7</ele>
        <time>2015-09-22T11:17:41Z</time>
      </trkpt>
      <trkpt lat="42.35238" lon="0.09973">
        <ele>863.5</ele>
        <time>2015-09-22T11:17:43Z</time>
      </trkpt>
      <trkpt lat="42.35236" lon="0.09975">
        <ele>863.2</ele>
        <time>2015-09-22T11:17:45Z</time>
      </trkpt>
      <trkpt lat="42.35232" lon="0.09975">
        <ele>862.8</ele>
        <time>2015-09-22T11:17:47Z</time>
      </trkpt>
      <trkpt lat="42.35226" lon="0.09977">
        <ele>862.4</ele>
        <time>2015-09-22T11:17:49Z</time>
      </trkpt>
      <trkpt lat="42.35224" lon="0.09979">
        <ele>862.1</ele>
        <time>2015-09-22T11:17:50Z</time>
      </trkpt>
      <trkpt lat="42.35221" lon="0.0998">
        <ele>861.9</ele>
        <time>2015-09-22T11:17:51Z</time>
      </trkpt>
      <trkpt lat="42.35218" lon="0.09981">
        <ele>861.6</ele>
        <time>2015-09-22T11:17:52Z</time>
      </trkpt>
      <trkpt lat="42.35215" lon="0.09982">
        <ele>861.4</ele>
        <time>2015-09-22T11:17:53Z</time>
      </trkpt>
      <trkpt lat="42.35211" lon="0.09982">
        <ele>861.1</ele>
        <time>2015-09-22T11:17:55Z</time>
      </trkpt>
      <trkpt lat="42.35208" lon="0.09984">
        <ele>860.9</ele>
        <time>2015-09-22T11:17:57Z</time>
      </trkpt>
      <trkpt lat="42.35205" lon="0.0999">
        <ele>860.9</ele>
        <time>2015-09-22T11:17:59Z</time>
      </trkpt>
      <trkpt lat="42.35201" lon="0.09998">
        <ele>860.9</ele>
        <time>2015-09-22T11:18:01Z</time>
      </trkpt>
      <trkpt lat="42.35199" lon="0.10002">
        <ele>861</ele>
        <time>2015-09-22T11:18:02Z</time>
      </trkpt>
      <trkpt lat="42.35197" lon="0.10006">
        <ele>860.9</ele>
        <time>2015-09-22T11:18:03Z</time>
      </trkpt>
      <trkpt lat="42.35196" lon="0.10011">
        <ele>860.9</ele>
        <time>2015-09-22T11:18:04Z</time>
      </trkpt>
      <trkpt lat="42.35195" lon="0.10014">
        <ele>860.9</ele>
        <time>2015-09-22T11:18:05Z</time>
      </trkpt>
      <trkpt lat="42.35193" lon="0.10018">
        <ele>861</ele>
        <time>2015-09-22T11:18:06Z</time>
      </trkpt>
      <trkpt lat="42.35192" lon="0.10023">
        <ele>860.9</ele>
        <time>2015-09-22T11:18:09Z</time>
      </trkpt>
      <trkpt lat="42.35191" lon="0.10027">
        <ele>860.9</ele>
        <time>2015-09-22T11:18:11Z</time>
      </trkpt>
      <trkpt lat="42.35189" lon="0.10032">
        <ele>860.9</ele>
        <time>2015-09-22T11:18:13Z</time>
      </trkpt>
      <trkpt lat="42.35185" lon="0.10034">
        <ele>861.3</ele>
        <time>2015-09-22T11:18:15Z</time>
      </trkpt>
      <trkpt lat="42.35179" lon="0.10034">
        <ele>862.1</ele>
        <time>2015-09-22T11:18:17Z</time>
      </trkpt>
      <trkpt lat="42.35175" lon="0.10034">
        <ele>862.7</ele>
        <time>2015-09-22T11:18:18Z</time>
      </trkpt>
      <trkpt lat="42.3517" lon="0.10035">
        <ele>863.2</ele>
        <time>2015-09-22T11:18:19Z</time>
      </trkpt>
      <trkpt lat="42.35167" lon="0.10038">
        <ele>863.6</ele>
        <time>2015-09-22T11:18:20Z</time>
      </trkpt>
      <trkpt lat="42.35164" lon="0.10042">
        <ele>863.8</ele>
        <time>2015-09-22T11:18:21Z</time>
      </trkpt>
      <trkpt lat="42.35162" lon="0.10047">
        <ele>863.8</ele>
        <time>2015-09-22T11:18:22Z</time>
      </trkpt>
      <trkpt lat="42.3516" lon="0.10052">
        <ele>863.8</ele>
        <time>2015-09-22T11:18:23Z</time>
      </trkpt>
      <trkpt lat="42.35158" lon="0.10057">
        <ele>863.8</ele>
        <time>2015-09-22T11:18:24Z</time>
      </trkpt>
      <trkpt lat="42.35155" lon="0.1006">
        <ele>864</ele>
        <time>2015-09-22T11:18:25Z</time>
      </trkpt>
      <trkpt lat="42.35152" lon="0.10063">
        <ele>864.2</ele>
        <time>2015-09-22T11:18:26Z</time>
      </trkpt>
      <trkpt lat="42.3515" lon="0.10065">
        <ele>864.5</ele>
        <time>2015-09-22T11:18:27Z</time>
      </trkpt>
      <trkpt lat="42.35147" lon="0.10068">
        <ele>864.7</ele>
        <time>2015-09-22T11:18:28Z</time>
      </trkpt>
      <trkpt lat="42.35145" lon="0.10071">
        <ele>864.8</ele>
        <time>2015-09-22T11:18:29Z</time>
      </trkpt>
      <trkpt lat="42.35144" lon="0.10075">
        <ele>864.8</ele>
        <time>2015-09-22T11:18:30Z</time>
      </trkpt>
      <trkpt lat="42.35143" lon="0.10078">
        <ele>864.7</ele>
        <time>2015-09-22T11:18:31Z</time>
      </trkpt>
      <trkpt lat="42.35141" lon="0.10085">
        <ele>864.6</ele>
        <time>2015-09-22T11:18:33Z</time>
      </trkpt>
      <trkpt lat="42.35138" lon="0.1009">
        <ele>864.8</ele>
        <time>2015-09-22T11:18:35Z</time>
      </trkpt>
      <trkpt lat="42.35135" lon="0.10093">
        <ele>865.1</ele>
        <time>2015-09-22T11:18:37Z</time>
      </trkpt>
      <trkpt lat="42.35133" lon="0.10096">
        <ele>865.3</ele>
        <time>2015-09-22T11:18:39Z</time>
      </trkpt>
      <trkpt lat="42.35131" lon="0.10099">
        <ele>865.3</ele>
        <time>2015-09-22T11:18:41Z</time>
      </trkpt>
      <trkpt lat="42.3513" lon="0.10104">
        <ele>865.2</ele>
        <time>2015-09-22T11:18:44Z</time>
      </trkpt>
      <trkpt lat="42.35128" lon="0.10107">
        <ele>865.4</ele>
        <time>2015-09-22T11:18:48Z</time>
      </trkpt>
      <trkpt lat="42.35127" lon="0.10111">
        <ele>865.4</ele>
        <time>2015-09-22T11:18:51Z</time>
      </trkpt>
      <trkpt lat="42.35125" lon="0.10116">
        <ele>865.5</ele>
        <time>2015-09-22T11:18:53Z</time>
      </trkpt>
      <trkpt lat="42.35123" lon="0.10123">
        <ele>865.4</ele>
        <time>2015-09-22T11:18:55Z</time>
      </trkpt>
      <trkpt lat="42.35122" lon="0.1013">
        <ele>865.3</ele>
        <time>2015-09-22T11:18:57Z</time>
      </trkpt>
      <trkpt lat="42.35121" lon="0.10134">
        <ele>865.3</ele>
        <time>2015-09-22T11:18:58Z</time>
      </trkpt>
      <trkpt lat="42.3512" lon="0.10137">
        <ele>865.3</ele>
        <time>2015-09-22T11:18:59Z</time>
      </trkpt>
      <trkpt lat="42.35118" lon="0.10141">
        <ele>865.2</ele>
        <time>2015-09-22T11:19:00Z</time>
      </trkpt>
      <trkpt lat="42.35117" lon="0.10145">
        <ele>865.2</ele>
        <time>2015-09-22T11:19:01Z</time>
      </trkpt>
      <trkpt lat="42.35116" lon="0.1015">
        <ele>865.2</ele>
        <time>2015-09-22T11:19:02Z</time>
      </trkpt>
      <trkpt lat="42.35114" lon="0.10154">
        <ele>865.3</ele>
        <time>2015-09-22T11:19:03Z</time>
      </trkpt>
      <trkpt lat="42.35112" lon="0.10158">
        <ele>865.5</ele>
        <time>2015-09-22T11:19:04Z</time>
      </trkpt>
      <trkpt lat="42.35109" lon="0.10161">
        <ele>865.7</ele>
        <time>2015-09-22T11:19:05Z</time>
      </trkpt>
      <trkpt lat="42.35106" lon="0.10165">
        <ele>865.9</ele>
        <time>2015-09-22T11:19:06Z</time>
      </trkpt>
      <trkpt lat="42.35104" lon="0.10168">
        <ele>866.1</ele>
        <time>2015-09-22T11:19:07Z</time>
      </trkpt>
      <trkpt lat="42.35101" lon="0.10171">
        <ele>866.3</ele>
        <time>2015-09-22T11:19:08Z</time>
      </trkpt>
      <trkpt lat="42.35099" lon="0.10174">
        <ele>866.5</ele>
        <time>2015-09-22T11:19:09Z</time>
      </trkpt>
      <trkpt lat="42.35096" lon="0.10178">
        <ele>866.7</ele>
        <time>2015-09-22T11:19:10Z</time>
      </trkpt>
      <trkpt lat="42.35094" lon="0.10182">
        <ele>866.8</ele>
        <time>2015-09-22T11:19:11Z</time>
      </trkpt>
      <trkpt lat="42.35093" lon="0.10186">
        <ele>866.8</ele>
        <time>2015-09-22T11:19:12Z</time>
      </trkpt>
      <trkpt lat="42.35092" lon="0.10191">
        <ele>866.7</ele>
        <time>2015-09-22T11:19:13Z</time>
      </trkpt>
      <trkpt lat="42.35091" lon="0.10196">
        <ele>866.5</ele>
        <time>2015-09-22T11:19:14Z</time>
      </trkpt>
      <trkpt lat="42.3509" lon="0.10202">
        <ele>866.4</ele>
        <time>2015-09-22T11:19:15Z</time>
      </trkpt>
      <trkpt lat="42.35089" lon="0.10207">
        <ele>866.3</ele>
        <time>2015-09-22T11:19:16Z</time>
      </trkpt>
      <trkpt lat="42.35087" lon="0.10213">
        <ele>865.6</ele>
        <time>2015-09-22T11:19:17Z</time>
      </trkpt>
      <trkpt lat="42.35086" lon="0.10219">
        <ele>864.8</ele>
        <time>2015-09-22T11:19:18Z</time>
      </trkpt>
      <trkpt lat="42.35085" lon="0.10225">
        <ele>864</ele>
        <time>2015-09-22T11:19:19Z</time>
      </trkpt>
      <trkpt lat="42.35084" lon="0.1023">
        <ele>863.3</ele>
        <time>2015-09-22T11:19:20Z</time>
      </trkpt>
      <trkpt lat="42.35082" lon="0.10236">
        <ele>862.5</ele>
        <time>2015-09-22T11:19:21Z</time>
      </trkpt>
      <trkpt lat="42.3508" lon="0.10241">
        <ele>861.9</ele>
        <time>2015-09-22T11:19:22Z</time>
      </trkpt>
      <trkpt lat="42.35078" lon="0.10246">
        <ele>861.4</ele>
        <time>2015-09-22T11:19:23Z</time>
      </trkpt>
      <trkpt lat="42.35075" lon="0.1025">
        <ele>861.1</ele>
        <time>2015-09-22T11:19:24Z</time>
      </trkpt>
      <trkpt lat="42.35071" lon="0.10253">
        <ele>861.1</ele>
        <time>2015-09-22T11:19:25Z</time>
      </trkpt>
      <trkpt lat="42.35067" lon="0.10255">
        <ele>861.4</ele>
        <time>2015-09-22T11:19:26Z</time>
      </trkpt>
      <trkpt lat="42.35062" lon="0.10254">
        <ele>862.1</ele>
        <time>2015-09-22T11:19:27Z</time>
      </trkpt>
      <trkpt lat="42.35058" lon="0.10253">
        <ele>862.9</ele>
        <time>2015-09-22T11:19:28Z</time>
      </trkpt>
      <trkpt lat="42.35053" lon="0.1025">
        <ele>863.9</ele>
        <time>2015-09-22T11:19:29Z</time>
      </trkpt>
      <trkpt lat="42.35049" lon="0.10247">
        <ele>864.9</ele>
        <time>2015-09-22T11:19:30Z</time>
      </trkpt>
      <trkpt lat="42.35045" lon="0.10245">
        <ele>866</ele>
        <time>2015-09-22T11:19:31Z</time>
      </trkpt>
      <trkpt lat="42.35041" lon="0.10242">
        <ele>867</ele>
        <time>2015-09-22T11:19:32Z</time>
      </trkpt>
      <trkpt lat="42.35038" lon="0.10239">
        <ele>867.7</ele>
        <time>2015-09-22T11:19:33Z</time>
      </trkpt>
      <trkpt lat="42.35034" lon="0.10237">
        <ele>868.3</ele>
        <time>2015-09-22T11:19:34Z</time>
      </trkpt>
      <trkpt lat="42.3503" lon="0.10234">
        <ele>868.9</ele>
        <time>2015-09-22T11:19:35Z</time>
      </trkpt>
      <trkpt lat="42.35026" lon="0.10232">
        <ele>869.4</ele>
        <time>2015-09-22T11:19:36Z</time>
      </trkpt>
      <trkpt lat="42.35022" lon="0.1023">
        <ele>869.9</ele>
        <time>2015-09-22T11:19:37Z</time>
      </trkpt>
      <trkpt lat="42.35018" lon="0.10228">
        <ele>870.3</ele>
        <time>2015-09-22T11:19:38Z</time>
      </trkpt>
      <trkpt lat="42.35014" lon="0.10227">
        <ele>870.7</ele>
        <time>2015-09-22T11:19:39Z</time>
      </trkpt>
      <trkpt lat="42.35011" lon="0.10225">
        <ele>871.1</ele>
        <time>2015-09-22T11:19:40Z</time>
      </trkpt>
      <trkpt lat="42.35007" lon="0.10223">
        <ele>871.4</ele>
        <time>2015-09-22T11:19:41Z</time>
      </trkpt>
      <trkpt lat="42.35004" lon="0.10221">
        <ele>871.8</ele>
        <time>2015-09-22T11:19:42Z</time>
      </trkpt>
      <trkpt lat="42.35001" lon="0.10219">
        <ele>872.1</ele>
        <time>2015-09-22T11:19:43Z</time>
      </trkpt>
      <trkpt lat="42.34998" lon="0.10216">
        <ele>872.5</ele>
        <time>2015-09-22T11:19:44Z</time>
      </trkpt>
      <trkpt lat="42.34995" lon="0.10213">
        <ele>873</ele>
        <time>2015-09-22T11:19:45Z</time>
      </trkpt>
      <trkpt lat="42.34992" lon="0.10211">
        <ele>873.3</ele>
        <time>2015-09-22T11:19:46Z</time>
      </trkpt>
      <trkpt lat="42.34988" lon="0.10209">
        <ele>873.6</ele>
        <time>2015-09-22T11:19:47Z</time>
      </trkpt>
      <trkpt lat="42.34984" lon="0.10208">
        <ele>873.7</ele>
        <time>2015-09-22T11:19:48Z</time>
      </trkpt>
      <trkpt lat="42.3498" lon="0.10208">
        <ele>873.8</ele>
        <time>2015-09-22T11:19:49Z</time>
      </trkpt>
      <trkpt lat="42.34977" lon="0.10209">
        <ele>873.7</ele>
        <time>2015-09-22T11:19:50Z</time>
      </trkpt>
      <trkpt lat="42.34974" lon="0.10212">
        <ele>873.5</ele>
        <time>2015-09-22T11:19:51Z</time>
      </trkpt>
      <trkpt lat="42.34971" lon="0.10215">
        <ele>873.3</ele>
        <time>2015-09-22T11:19:52Z</time>
      </trkpt>
      <trkpt lat="42.34969" lon="0.10217">
        <ele>873.1</ele>
        <time>2015-09-22T11:19:53Z</time>
      </trkpt>
      <trkpt lat="42.34966" lon="0.1022">
        <ele>873</ele>
        <time>2015-09-22T11:19:54Z</time>
      </trkpt>
      <trkpt lat="42.34963" lon="0.10222">
        <ele>872.9</ele>
        <time>2015-09-22T11:19:55Z</time>
      </trkpt>
      <trkpt lat="42.34961" lon="0.10223">
        <ele>872.8</ele>
        <time>2015-09-22T11:19:56Z</time>
      </trkpt>
      <trkpt lat="42.34958" lon="0.10225">
        <ele>872.8</ele>
        <time>2015-09-22T11:19:57Z</time>
      </trkpt>
      <trkpt lat="42.34956" lon="0.10227">
        <ele>872.8</ele>
        <time>2015-09-22T11:19:58Z</time>
      </trkpt>
      <trkpt lat="42.34953" lon="0.10229">
        <ele>872.7</ele>
        <time>2015-09-22T11:19:59Z</time>
      </trkpt>
      <trkpt lat="42.34951" lon="0.10231">
        <ele>872.6</ele>
        <time>2015-09-22T11:20:00Z</time>
      </trkpt>
      <trkpt lat="42.34948" lon="0.10232">
        <ele>872.6</ele>
        <time>2015-09-22T11:20:01Z</time>
      </trkpt>
      <trkpt lat="42.34945" lon="0.10234">
        <ele>872.6</ele>
        <time>2015-09-22T11:20:02Z</time>
      </trkpt>
      <trkpt lat="42.34942" lon="0.10235">
        <ele>872.6</ele>
        <time>2015-09-22T11:20:03Z</time>
      </trkpt>
      <trkpt lat="42.3494" lon="0.10236">
        <ele>872.7</ele>
        <time>2015-09-22T11:20:04Z</time>
      </trkpt>
      <trkpt lat="42.34937" lon="0.10238">
        <ele>872.7</ele>
        <time>2015-09-22T11:20:05Z</time>
      </trkpt>
      <trkpt lat="42.34936" lon="0.10242">
        <ele>872.6</ele>
        <time>2015-09-22T11:20:06Z</time>
      </trkpt>
      <trkpt lat="42.34937" lon="0.10247">
        <ele>872.3</ele>
        <time>2015-09-22T11:20:07Z</time>
      </trkpt>
      <trkpt lat="42.34939" lon="0.10251">
        <ele>872</ele>
        <time>2015-09-22T11:20:08Z</time>
      </trkpt>
      <trkpt lat="42.34942" lon="0.10254">
        <ele>871.7</ele>
        <time>2015-09-22T11:20:09Z</time>
      </trkpt>
      <trkpt lat="42.34946" lon="0.10258">
        <ele>871.2</ele>
        <time>2015-09-22T11:20:10Z</time>
      </trkpt>
      <trkpt lat="42.3495" lon="0.10262">
        <ele>870.7</ele>
        <time>2015-09-22T11:20:11Z</time>
      </trkpt>
      <trkpt lat="42.34954" lon="0.10267">
        <ele>870.1</ele>
        <time>2015-09-22T11:20:12Z</time>
      </trkpt>
      <trkpt lat="42.34958" lon="0.10271">
        <ele>869.5</ele>
        <time>2015-09-22T11:20:13Z</time>
      </trkpt>
      <trkpt lat="42.34965" lon="0.10277">
        <ele>868.4</ele>
        <time>2015-09-22T11:20:14Z</time>
      </trkpt>
      <trkpt lat="42.3497" lon="0.10281">
        <ele>867.5</ele>
        <time>2015-09-22T11:20:15Z</time>
      </trkpt>
      <trkpt lat="42.34974" lon="0.10283">
        <ele>866.9</ele>
        <time>2015-09-22T11:20:16Z</time>
      </trkpt>
      <trkpt lat="42.3498" lon="0.10285">
        <ele>866.1</ele>
        <time>2015-09-22T11:20:17Z</time>
      </trkpt>
      <trkpt lat="42.34984" lon="0.10287">
        <ele>865.4</ele>
        <time>2015-09-22T11:20:18Z</time>
      </trkpt>
      <trkpt lat="42.34989" lon="0.10291">
        <ele>864.3</ele>
        <time>2015-09-22T11:20:19Z</time>
      </trkpt>
      <trkpt lat="42.34993" lon="0.10296">
        <ele>864</ele>
        <time>2015-09-22T11:20:20Z</time>
      </trkpt>
      <trkpt lat="42.34997" lon="0.10301">
        <ele>863.8</ele>
        <time>2015-09-22T11:20:21Z</time>
      </trkpt>
      <trkpt lat="42.34999" lon="0.10307">
        <ele>863.8</ele>
        <time>2015-09-22T11:20:22Z</time>
      </trkpt>
      <trkpt lat="42.35001" lon="0.10314">
        <ele>863.9</ele>
        <time>2015-09-22T11:20:23Z</time>
      </trkpt>
      <trkpt lat="42.35003" lon="0.10321">
        <ele>864.1</ele>
        <time>2015-09-22T11:20:24Z</time>
      </trkpt>
      <trkpt lat="42.35005" lon="0.10328">
        <ele>864.1</ele>
        <time>2015-09-22T11:20:25Z</time>
      </trkpt>
      <trkpt lat="42.35008" lon="0.10334">
        <ele>863.9</ele>
        <time>2015-09-22T11:20:26Z</time>
      </trkpt>
      <trkpt lat="42.35011" lon="0.1034">
        <ele>863.7</ele>
        <time>2015-09-22T11:20:27Z</time>
      </trkpt>
      <trkpt lat="42.35014" lon="0.10344">
        <ele>863.5</ele>
        <time>2015-09-22T11:20:28Z</time>
      </trkpt>
      <trkpt lat="42.35018" lon="0.10349">
        <ele>863.1</ele>
        <time>2015-09-22T11:20:29Z</time>
      </trkpt>
      <trkpt lat="42.35021" lon="0.10353">
        <ele>862.6</ele>
        <time>2015-09-22T11:20:30Z</time>
      </trkpt>
      <trkpt lat="42.35025" lon="0.10357">
        <ele>862.3</ele>
        <time>2015-09-22T11:20:31Z</time>
      </trkpt>
      <trkpt lat="42.35028" lon="0.10362">
        <ele>862</ele>
        <time>2015-09-22T11:20:32Z</time>
      </trkpt>
      <trkpt lat="42.3503" lon="0.10368">
        <ele>861.7</ele>
        <time>2015-09-22T11:20:33Z</time>
      </trkpt>
      <trkpt lat="42.35033" lon="0.10373">
        <ele>861.3</ele>
        <time>2015-09-22T11:20:34Z</time>
      </trkpt>
      <trkpt lat="42.35036" lon="0.1038">
        <ele>861.2</ele>
        <time>2015-09-22T11:20:35Z</time>
      </trkpt>
      <trkpt lat="42.35037" lon="0.10387">
        <ele>861.4</ele>
        <time>2015-09-22T11:20:36Z</time>
      </trkpt>
      <trkpt lat="42.35037" lon="0.10394">
        <ele>861.6</ele>
        <time>2015-09-22T11:20:37Z</time>
      </trkpt>
      <trkpt lat="42.35036" lon="0.104">
        <ele>862</ele>
        <time>2015-09-22T11:20:38Z</time>
      </trkpt>
      <trkpt lat="42.35036" lon="0.10406">
        <ele>862.3</ele>
        <time>2015-09-22T11:20:39Z</time>
      </trkpt>
      <trkpt lat="42.35036" lon="0.10412">
        <ele>862.5</ele>
        <time>2015-09-22T11:20:40Z</time>
      </trkpt>
      <trkpt lat="42.35036" lon="0.10418">
        <ele>862.8</ele>
        <time>2015-09-22T11:20:41Z</time>
      </trkpt>
      <trkpt lat="42.35036" lon="0.10424">
        <ele>863.1</ele>
        <time>2015-09-22T11:20:42Z</time>
      </trkpt>
      <trkpt lat="42.35034" lon="0.10429">
        <ele>863.5</ele>
        <time>2015-09-22T11:20:43Z</time>
      </trkpt>
      <trkpt lat="42.35033" lon="0.10433">
        <ele>863.8</ele>
        <time>2015-09-22T11:20:44Z</time>
      </trkpt>
      <trkpt lat="42.35031" lon="0.10439">
        <ele>864.2</ele>
        <time>2015-09-22T11:20:45Z</time>
      </trkpt>
      <trkpt lat="42.3503" lon="0.10444">
        <ele>864.6</ele>
        <time>2015-09-22T11:20:46Z</time>
      </trkpt>
      <trkpt lat="42.35029" lon="0.10449">
        <ele>864.9</ele>
        <time>2015-09-22T11:20:47Z</time>
      </trkpt>
      <trkpt lat="42.35028" lon="0.10453">
        <ele>865.2</ele>
        <time>2015-09-22T11:20:48Z</time>
      </trkpt>
      <trkpt lat="42.35026" lon="0.10457">
        <ele>865.5</ele>
        <time>2015-09-22T11:20:49Z</time>
      </trkpt>
      <trkpt lat="42.35024" lon="0.10461">
        <ele>865.4</ele>
        <time>2015-09-22T11:20:50Z</time>
      </trkpt>
      <trkpt lat="42.35023" lon="0.10465">
        <ele>865.1</ele>
        <time>2015-09-22T11:20:51Z</time>
      </trkpt>
      <trkpt lat="42.35023" lon="0.1047">
        <ele>864.6</ele>
        <time>2015-09-22T11:20:52Z</time>
      </trkpt>
      <trkpt lat="42.35022" lon="0.10475">
        <ele>864.1</ele>
        <time>2015-09-22T11:20:53Z</time>
      </trkpt>
      <trkpt lat="42.35021" lon="0.10484">
        <ele>863.2</ele>
        <time>2015-09-22T11:20:54Z</time>
      </trkpt>
      <trkpt lat="42.35019" lon="0.10493">
        <ele>862.4</ele>
        <time>2015-09-22T11:20:55Z</time>
      </trkpt>
      <trkpt lat="42.35018" lon="0.10501">
        <ele>861.6</ele>
        <time>2015-09-22T11:20:56Z</time>
      </trkpt>
      <trkpt lat="42.35015" lon="0.1051">
        <ele>860.8</ele>
        <time>2015-09-22T11:20:57Z</time>
      </trkpt>
      <trkpt lat="42.35014" lon="0.10518">
        <ele>860</ele>
        <time>2015-09-22T11:20:58Z</time>
      </trkpt>
      <trkpt lat="42.35012" lon="0.10525">
        <ele>859.3</ele>
        <time>2015-09-22T11:20:59Z</time>
      </trkpt>
      <trkpt lat="42.35011" lon="0.10533">
        <ele>858.5</ele>
        <time>2015-09-22T11:21:00Z</time>
      </trkpt>
      <trkpt lat="42.35009" lon="0.1054">
        <ele>857.8</ele>
        <time>2015-09-22T11:21:01Z</time>
      </trkpt>
      <trkpt lat="42.35007" lon="0.10546">
        <ele>857.2</ele>
        <time>2015-09-22T11:21:02Z</time>
      </trkpt>
      <trkpt lat="42.35003" lon="0.10551">
        <ele>856.7</ele>
        <time>2015-09-22T11:21:03Z</time>
      </trkpt>
      <trkpt lat="42.35" lon="0.10556">
        <ele>856.3</ele>
        <time>2015-09-22T11:21:04Z</time>
      </trkpt>
      <trkpt lat="42.34997" lon="0.10563">
        <ele>855.7</ele>
        <time>2015-09-22T11:21:05Z</time>
      </trkpt>
      <trkpt lat="42.34996" lon="0.10571">
        <ele>854.9</ele>
        <time>2015-09-22T11:21:06Z</time>
      </trkpt>
      <trkpt lat="42.34995" lon="0.10578">
        <ele>854.1</ele>
        <time>2015-09-22T11:21:07Z</time>
      </trkpt>
      <trkpt lat="42.34994" lon="0.10587">
        <ele>853.2</ele>
        <time>2015-09-22T11:21:08Z</time>
      </trkpt>
      <trkpt lat="42.34992" lon="0.10595">
        <ele>852.3</ele>
        <time>2015-09-22T11:21:09Z</time>
      </trkpt>
      <trkpt lat="42.34989" lon="0.10602">
        <ele>851.5</ele>
        <time>2015-09-22T11:21:10Z</time>
      </trkpt>
      <trkpt lat="42.34987" lon="0.1061">
        <ele>850.7</ele>
        <time>2015-09-22T11:21:11Z</time>
      </trkpt>
      <trkpt lat="42.34986" lon="0.10617">
        <ele>849.9</ele>
        <time>2015-09-22T11:21:12Z</time>
      </trkpt>
      <trkpt lat="42.34985" lon="0.10625">
        <ele>849</ele>
        <time>2015-09-22T11:21:13Z</time>
      </trkpt>
      <trkpt lat="42.34986" lon="0.10633">
        <ele>848.4</ele>
        <time>2015-09-22T11:21:14Z</time>
      </trkpt>
      <trkpt lat="42.34987" lon="0.10641">
        <ele>847.8</ele>
        <time>2015-09-22T11:21:15Z</time>
      </trkpt>
      <trkpt lat="42.34988" lon="0.10649">
        <ele>847.1</ele>
        <time>2015-09-22T11:21:16Z</time>
      </trkpt>
      <trkpt lat="42.34989" lon="0.10657">
        <ele>846.5</ele>
        <time>2015-09-22T11:21:17Z</time>
      </trkpt>
      <trkpt lat="42.3499" lon="0.10665">
        <ele>845.9</ele>
        <time>2015-09-22T11:21:18Z</time>
      </trkpt>
      <trkpt lat="42.34992" lon="0.10672">
        <ele>845.3</ele>
        <time>2015-09-22T11:21:19Z</time>
      </trkpt>
      <trkpt lat="42.34994" lon="0.10678">
        <ele>844.8</ele>
        <time>2015-09-22T11:21:20Z</time>
      </trkpt>
      <trkpt lat="42.34996" lon="0.10683">
        <ele>844.4</ele>
        <time>2015-09-22T11:21:21Z</time>
      </trkpt>
      <trkpt lat="42.34999" lon="0.10688">
        <ele>844</ele>
        <time>2015-09-22T11:21:22Z</time>
      </trkpt>
      <trkpt lat="42.35001" lon="0.10692">
        <ele>843.7</ele>
        <time>2015-09-22T11:21:23Z</time>
      </trkpt>
      <trkpt lat="42.35002" lon="0.10698">
        <ele>843.2</ele>
        <time>2015-09-22T11:21:24Z</time>
      </trkpt>
      <trkpt lat="42.35003" lon="0.10705">
        <ele>842.7</ele>
        <time>2015-09-22T11:21:25Z</time>
      </trkpt>
      <trkpt lat="42.35006" lon="0.10712">
        <ele>842.2</ele>
        <time>2015-09-22T11:21:26Z</time>
      </trkpt>
      <trkpt lat="42.35008" lon="0.1072">
        <ele>841.5</ele>
        <time>2015-09-22T11:21:27Z</time>
      </trkpt>
      <trkpt lat="42.35009" lon="0.10728">
        <ele>840.8</ele>
        <time>2015-09-22T11:21:28Z</time>
      </trkpt>
      <trkpt lat="42.3501" lon="0.10737">
        <ele>840.1</ele>
        <time>2015-09-22T11:21:29Z</time>
      </trkpt>
      <trkpt lat="42.3501" lon="0.10744">
        <ele>839.6</ele>
        <time>2015-09-22T11:21:30Z</time>
      </trkpt>
      <trkpt lat="42.35012" lon="0.10751">
        <ele>839</ele>
        <time>2015-09-22T11:21:31Z</time>
      </trkpt>
      <trkpt lat="42.35013" lon="0.10759">
        <ele>838.5</ele>
        <time>2015-09-22T11:21:32Z</time>
      </trkpt>
      <trkpt lat="42.35013" lon="0.10767">
        <ele>837.8</ele>
        <time>2015-09-22T11:21:33Z</time>
      </trkpt>
      <trkpt lat="42.35012" lon="0.10775">
        <ele>837.2</ele>
        <time>2015-09-22T11:21:34Z</time>
      </trkpt>
      <trkpt lat="42.3501" lon="0.10781">
        <ele>836.7</ele>
        <time>2015-09-22T11:21:35Z</time>
      </trkpt>
      <trkpt lat="42.35006" lon="0.10786">
        <ele>836.2</ele>
        <time>2015-09-22T11:21:36Z</time>
      </trkpt>
      <trkpt lat="42.35002" lon="0.10787">
        <ele>835.9</ele>
        <time>2015-09-22T11:21:37Z</time>
      </trkpt>
      <trkpt lat="42.34998" lon="0.10788">
        <ele>835.7</ele>
        <time>2015-09-22T11:21:38Z</time>
      </trkpt>
      <trkpt lat="42.34995" lon="0.10787">
        <ele>835.7</ele>
        <time>2015-09-22T11:21:39Z</time>
      </trkpt>
      <trkpt lat="42.34992" lon="0.10785">
        <ele>835.8</ele>
        <time>2015-09-22T11:21:43Z</time>
      </trkpt>
      <trkpt lat="42.34988" lon="0.10786">
        <ele>835.6</ele>
        <time>2015-09-22T11:22:11Z</time>
      </trkpt>
      <trkpt lat="42.34984" lon="0.10783">
        <ele>835.7</ele>
        <time>2015-09-22T11:22:13Z</time>
      </trkpt>
      <trkpt lat="42.34979" lon="0.1078">
        <ele>835.9</ele>
        <time>2015-09-22T11:22:15Z</time>
      </trkpt>
      <trkpt lat="42.34976" lon="0.10778">
        <ele>836</ele>
        <time>2015-09-22T11:22:16Z</time>
      </trkpt>
      <trkpt lat="42.34972" lon="0.10775">
        <ele>836.2</ele>
        <time>2015-09-22T11:22:17Z</time>
      </trkpt>
      <trkpt lat="42.34969" lon="0.10772">
        <ele>836.4</ele>
        <time>2015-09-22T11:22:18Z</time>
      </trkpt>
      <trkpt lat="42.34965" lon="0.10769">
        <ele>836.6</ele>
        <time>2015-09-22T11:22:19Z</time>
      </trkpt>
      <trkpt lat="42.34962" lon="0.10767">
        <ele>836.7</ele>
        <time>2015-09-22T11:22:20Z</time>
      </trkpt>
      <trkpt lat="42.34958" lon="0.10765">
        <ele>837</ele>
        <time>2015-09-22T11:22:21Z</time>
      </trkpt>
      <trkpt lat="42.34954" lon="0.10762">
        <ele>837.5</ele>
        <time>2015-09-22T11:22:22Z</time>
      </trkpt>
      <trkpt lat="42.34951" lon="0.10759">
        <ele>838</ele>
        <time>2015-09-22T11:22:23Z</time>
      </trkpt>
      <trkpt lat="42.34947" lon="0.10756">
        <ele>838.6</ele>
        <time>2015-09-22T11:22:24Z</time>
      </trkpt>
      <trkpt lat="42.34944" lon="0.10751">
        <ele>839.2</ele>
        <time>2015-09-22T11:22:25Z</time>
      </trkpt>
      <trkpt lat="42.34942" lon="0.10747">
        <ele>839.8</ele>
        <time>2015-09-22T11:22:26Z</time>
      </trkpt>
      <trkpt lat="42.3494" lon="0.10741">
        <ele>840.4</ele>
        <time>2015-09-22T11:22:27Z</time>
      </trkpt>
      <trkpt lat="42.34939" lon="0.10736">
        <ele>841</ele>
        <time>2015-09-22T11:22:28Z</time>
      </trkpt>
      <trkpt lat="42.34937" lon="0.10731">
        <ele>841.6</ele>
        <time>2015-09-22T11:22:29Z</time>
      </trkpt>
      <trkpt lat="42.34935" lon="0.10725">
        <ele>842.2</ele>
        <time>2015-09-22T11:22:30Z</time>
      </trkpt>
      <trkpt lat="42.34933" lon="0.1072">
        <ele>842.8</ele>
        <time>2015-09-22T11:22:31Z</time>
      </trkpt>
      <trkpt lat="42.34932" lon="0.10715">
        <ele>843.3</ele>
        <time>2015-09-22T11:22:32Z</time>
      </trkpt>
      <trkpt lat="42.3493" lon="0.1071">
        <ele>843.9</ele>
        <time>2015-09-22T11:22:33Z</time>
      </trkpt>
      <trkpt lat="42.3493" lon="0.10704">
        <ele>844.4</ele>
        <time>2015-09-22T11:22:34Z</time>
      </trkpt>
      <trkpt lat="42.34931" lon="0.10699">
        <ele>845</ele>
        <time>2015-09-22T11:22:35Z</time>
      </trkpt>
      <trkpt lat="42.34932" lon="0.10693">
        <ele>845.5</ele>
        <time>2015-09-22T11:22:36Z</time>
      </trkpt>
      <trkpt lat="42.34933" lon="0.10688">
        <ele>846</ele>
        <time>2015-09-22T11:22:37Z</time>
      </trkpt>
      <trkpt lat="42.34933" lon="0.10683">
        <ele>846.4</ele>
        <time>2015-09-22T11:22:38Z</time>
      </trkpt>
      <trkpt lat="42.34933" lon="0.10677">
        <ele>847</ele>
        <time>2015-09-22T11:22:39Z</time>
      </trkpt>
      <trkpt lat="42.34932" lon="0.10673">
        <ele>847.5</ele>
        <time>2015-09-22T11:22:40Z</time>
      </trkpt>
      <trkpt lat="42.34929" lon="0.1067">
        <ele>847.9</ele>
        <time>2015-09-22T11:22:41Z</time>
      </trkpt>
      <trkpt lat="42.34927" lon="0.10668">
        <ele>848.2</ele>
        <time>2015-09-22T11:22:42Z</time>
      </trkpt>
      <trkpt lat="42.34924" lon="0.10667">
        <ele>848.6</ele>
        <time>2015-09-22T11:22:43Z</time>
      </trkpt>
      <trkpt lat="42.3492" lon="0.10664">
        <ele>849</ele>
        <time>2015-09-22T11:22:45Z</time>
      </trkpt>
      <trkpt lat="42.34917" lon="0.10664">
        <ele>849.3</ele>
        <time>2015-09-22T11:22:46Z</time>
      </trkpt>
      <trkpt lat="42.34914" lon="0.10665">
        <ele>849.4</ele>
        <time>2015-09-22T11:22:47Z</time>
      </trkpt>
      <trkpt lat="42.34911" lon="0.10667">
        <ele>849.4</ele>
        <time>2015-09-22T11:22:48Z</time>
      </trkpt>
      <trkpt lat="42.34908" lon="0.10669">
        <ele>849.3</ele>
        <time>2015-09-22T11:22:49Z</time>
      </trkpt>
      <trkpt lat="42.34905" lon="0.10671">
        <ele>849.3</ele>
        <time>2015-09-22T11:22:50Z</time>
      </trkpt>
      <trkpt lat="42.34902" lon="0.10673">
        <ele>849.2</ele>
        <time>2015-09-22T11:22:51Z</time>
      </trkpt>
      <trkpt lat="42.349" lon="0.10676">
        <ele>849</ele>
        <time>2015-09-22T11:22:52Z</time>
      </trkpt>
      <trkpt lat="42.34898" lon="0.10679">
        <ele>848.7</ele>
        <time>2015-09-22T11:22:53Z</time>
      </trkpt>
      <trkpt lat="42.34897" lon="0.10683">
        <ele>848.3</ele>
        <time>2015-09-22T11:22:54Z</time>
      </trkpt>
      <trkpt lat="42.34895" lon="0.10687">
        <ele>847.9</ele>
        <time>2015-09-22T11:22:55Z</time>
      </trkpt>
      <trkpt lat="42.34893" lon="0.10692">
        <ele>847.4</ele>
        <time>2015-09-22T11:22:56Z</time>
      </trkpt>
      <trkpt lat="42.3489" lon="0.10697">
        <ele>846.9</ele>
        <time>2015-09-22T11:22:57Z</time>
      </trkpt>
      <trkpt lat="42.34887" lon="0.10701">
        <ele>846.4</ele>
        <time>2015-09-22T11:22:58Z</time>
      </trkpt>
      <trkpt lat="42.34884" lon="0.10706">
        <ele>845.9</ele>
        <time>2015-09-22T11:22:59Z</time>
      </trkpt>
      <trkpt lat="42.34882" lon="0.10711">
        <ele>845.6</ele>
        <time>2015-09-22T11:23:00Z</time>
      </trkpt>
      <trkpt lat="42.34879" lon="0.10715">
        <ele>845.4</ele>
        <time>2015-09-22T11:23:01Z</time>
      </trkpt>
      <trkpt lat="42.34877" lon="0.1072">
        <ele>845.2</ele>
        <time>2015-09-22T11:23:02Z</time>
      </trkpt>
      <trkpt lat="42.34875" lon="0.10724">
        <ele>845</ele>
        <time>2015-09-22T11:23:03Z</time>
      </trkpt>
      <trkpt lat="42.34874" lon="0.10729">
        <ele>844.8</ele>
        <time>2015-09-22T11:23:04Z</time>
      </trkpt>
      <trkpt lat="42.34873" lon="0.10735">
        <ele>844.4</ele>
        <time>2015-09-22T11:23:05Z</time>
      </trkpt>
      <trkpt lat="42.34873" lon="0.1074">
        <ele>844.1</ele>
        <time>2015-09-22T11:23:06Z</time>
      </trkpt>
      <trkpt lat="42.34872" lon="0.10745">
        <ele>843.9</ele>
        <time>2015-09-22T11:23:07Z</time>
      </trkpt>
      <trkpt lat="42.34871" lon="0.10749">
        <ele>843.7</ele>
        <time>2015-09-22T11:23:08Z</time>
      </trkpt>
      <trkpt lat="42.3487" lon="0.10753">
        <ele>843.4</ele>
        <time>2015-09-22T11:23:09Z</time>
      </trkpt>
      <trkpt lat="42.34869" lon="0.10758">
        <ele>843.1</ele>
        <time>2015-09-22T11:23:10Z</time>
      </trkpt>
      <trkpt lat="42.34869" lon="0.10763">
        <ele>842.8</ele>
        <time>2015-09-22T11:23:11Z</time>
      </trkpt>
      <trkpt lat="42.34869" lon="0.10768">
        <ele>842.5</ele>
        <time>2015-09-22T11:23:12Z</time>
      </trkpt>
      <trkpt lat="42.34869" lon="0.10774">
        <ele>842.2</ele>
        <time>2015-09-22T11:23:13Z</time>
      </trkpt>
      <trkpt lat="42.34869" lon="0.1078">
        <ele>841.8</ele>
        <time>2015-09-22T11:23:14Z</time>
      </trkpt>
      <trkpt lat="42.34868" lon="0.10785">
        <ele>841.5</ele>
        <time>2015-09-22T11:23:15Z</time>
      </trkpt>
      <trkpt lat="42.34866" lon="0.1079">
        <ele>841.2</ele>
        <time>2015-09-22T11:23:16Z</time>
      </trkpt>
      <trkpt lat="42.34864" lon="0.10795">
        <ele>841.1</ele>
        <time>2015-09-22T11:23:17Z</time>
      </trkpt>
      <trkpt lat="42.34862" lon="0.10798">
        <ele>841.1</ele>
        <time>2015-09-22T11:23:18Z</time>
      </trkpt>
      <trkpt lat="42.3486" lon="0.10802">
        <ele>841</ele>
        <time>2015-09-22T11:23:19Z</time>
      </trkpt>
      <trkpt lat="42.34858" lon="0.10806">
        <ele>841</ele>
        <time>2015-09-22T11:23:20Z</time>
      </trkpt>
      <trkpt lat="42.34857" lon="0.1081">
        <ele>840.9</ele>
        <time>2015-09-22T11:23:21Z</time>
      </trkpt>
      <trkpt lat="42.34856" lon="0.10815">
        <ele>840.8</ele>
        <time>2015-09-22T11:23:22Z</time>
      </trkpt>
      <trkpt lat="42.34855" lon="0.10819">
        <ele>840.8</ele>
        <time>2015-09-22T11:23:23Z</time>
      </trkpt>
      <trkpt lat="42.34854" lon="0.10823">
        <ele>840.7</ele>
        <time>2015-09-22T11:23:24Z</time>
      </trkpt>
      <trkpt lat="42.34852" lon="0.10827">
        <ele>840.6</ele>
        <time>2015-09-22T11:23:25Z</time>
      </trkpt>
      <trkpt lat="42.34851" lon="0.10832">
        <ele>840.5</ele>
        <time>2015-09-22T11:23:26Z</time>
      </trkpt>
      <trkpt lat="42.3485" lon="0.10836">
        <ele>840.4</ele>
        <time>2015-09-22T11:23:27Z</time>
      </trkpt>
      <trkpt lat="42.3485" lon="0.10841">
        <ele>840.3</ele>
        <time>2015-09-22T11:23:28Z</time>
      </trkpt>
      <trkpt lat="42.34849" lon="0.10847">
        <ele>840.2</ele>
        <time>2015-09-22T11:23:29Z</time>
      </trkpt>
      <trkpt lat="42.34849" lon="0.10852">
        <ele>840.1</ele>
        <time>2015-09-22T11:23:30Z</time>
      </trkpt>
      <trkpt lat="42.3485" lon="0.10858">
        <ele>840</ele>
        <time>2015-09-22T11:23:31Z</time>
      </trkpt>
      <trkpt lat="42.3485" lon="0.10864">
        <ele>839.9</ele>
        <time>2015-09-22T11:23:32Z</time>
      </trkpt>
      <trkpt lat="42.3485" lon="0.10872">
        <ele>839.8</ele>
        <time>2015-09-22T11:23:33Z</time>
      </trkpt>
      <trkpt lat="42.34848" lon="0.10883">
        <ele>839.3</ele>
        <time>2015-09-22T11:23:34Z</time>
      </trkpt>
      <trkpt lat="42.34848" lon="0.10887">
        <ele>839.1</ele>
        <time>2015-09-22T11:23:35Z</time>
      </trkpt>
      <trkpt lat="42.34847" lon="0.10892">
        <ele>838.8</ele>
        <time>2015-09-22T11:23:36Z</time>
      </trkpt>
      <trkpt lat="42.34847" lon="0.10898">
        <ele>838.5</ele>
        <time>2015-09-22T11:23:37Z</time>
      </trkpt>
      <trkpt lat="42.34846" lon="0.10903">
        <ele>838.2</ele>
        <time>2015-09-22T11:23:38Z</time>
      </trkpt>
      <trkpt lat="42.34845" lon="0.10907">
        <ele>838</ele>
        <time>2015-09-22T11:23:39Z</time>
      </trkpt>
      <trkpt lat="42.34843" lon="0.10912">
        <ele>837.8</ele>
        <time>2015-09-22T11:23:40Z</time>
      </trkpt>
      <trkpt lat="42.34842" lon="0.10917">
        <ele>837.6</ele>
        <time>2015-09-22T11:23:41Z</time>
      </trkpt>
      <trkpt lat="42.34841" lon="0.10924">
        <ele>837.3</ele>
        <time>2015-09-22T11:23:42Z</time>
      </trkpt>
      <trkpt lat="42.34841" lon="0.10929">
        <ele>837.1</ele>
        <time>2015-09-22T11:23:43Z</time>
      </trkpt>
      <trkpt lat="42.34839" lon="0.10933">
        <ele>836.9</ele>
        <time>2015-09-22T11:23:44Z</time>
      </trkpt>
      <trkpt lat="42.34839" lon="0.10937">
        <ele>836.7</ele>
        <time>2015-09-22T11:23:45Z</time>
      </trkpt>
      <trkpt lat="42.34838" lon="0.1094">
        <ele>836.6</ele>
        <time>2015-09-22T11:23:46Z</time>
      </trkpt>
      <trkpt lat="42.34836" lon="0.10944">
        <ele>836.5</ele>
        <time>2015-09-22T11:23:47Z</time>
      </trkpt>
      <trkpt lat="42.34835" lon="0.10949">
        <ele>836.3</ele>
        <time>2015-09-22T11:23:48Z</time>
      </trkpt>
      <trkpt lat="42.34834" lon="0.10953">
        <ele>836.2</ele>
        <time>2015-09-22T11:23:49Z</time>
      </trkpt>
      <trkpt lat="42.34833" lon="0.10957">
        <ele>836.1</ele>
        <time>2015-09-22T11:23:50Z</time>
      </trkpt>
      <trkpt lat="42.34831" lon="0.10961">
        <ele>835.8</ele>
        <time>2015-09-22T11:23:51Z</time>
      </trkpt>
      <trkpt lat="42.3483" lon="0.10965">
        <ele>835.5</ele>
        <time>2015-09-22T11:23:52Z</time>
      </trkpt>
      <trkpt lat="42.3483" lon="0.10971">
        <ele>834.9</ele>
        <time>2015-09-22T11:23:54Z</time>
      </trkpt>
      <trkpt lat="42.3483" lon="0.10978">
        <ele>834.2</ele>
        <time>2015-09-22T11:24:00Z</time>
      </trkpt>
      <trkpt lat="42.34828" lon="0.10984">
        <ele>833.7</ele>
        <time>2015-09-22T11:24:02Z</time>
      </trkpt>
      <trkpt lat="42.34827" lon="0.10988">
        <ele>833.3</ele>
        <time>2015-09-22T11:24:03Z</time>
      </trkpt>
      <trkpt lat="42.34826" lon="0.10993">
        <ele>833</ele>
        <time>2015-09-22T11:24:04Z</time>
      </trkpt>
      <trkpt lat="42.34824" lon="0.10997">
        <ele>832.7</ele>
        <time>2015-09-22T11:24:05Z</time>
      </trkpt>
      <trkpt lat="42.34823" lon="0.11001">
        <ele>832.4</ele>
        <time>2015-09-22T11:24:06Z</time>
      </trkpt>
      <trkpt lat="42.34822" lon="0.11005">
        <ele>832</ele>
        <time>2015-09-22T11:24:07Z</time>
      </trkpt>
      <trkpt lat="42.34821" lon="0.1101">
        <ele>831.6</ele>
        <time>2015-09-22T11:24:08Z</time>
      </trkpt>
      <trkpt lat="42.3482" lon="0.11015">
        <ele>831.2</ele>
        <time>2015-09-22T11:24:09Z</time>
      </trkpt>
      <trkpt lat="42.34818" lon="0.1102">
        <ele>830.8</ele>
        <time>2015-09-22T11:24:10Z</time>
      </trkpt>
      <trkpt lat="42.34817" lon="0.11025">
        <ele>830.5</ele>
        <time>2015-09-22T11:24:11Z</time>
      </trkpt>
      <trkpt lat="42.34815" lon="0.1103">
        <ele>830.1</ele>
        <time>2015-09-22T11:24:12Z</time>
      </trkpt>
      <trkpt lat="42.34813" lon="0.11035">
        <ele>829.8</ele>
        <time>2015-09-22T11:24:13Z</time>
      </trkpt>
      <trkpt lat="42.34811" lon="0.11041">
        <ele>829.5</ele>
        <time>2015-09-22T11:24:14Z</time>
      </trkpt>
      <trkpt lat="42.34807" lon="0.11046">
        <ele>829.4</ele>
        <time>2015-09-22T11:24:15Z</time>
      </trkpt>
      <trkpt lat="42.34803" lon="0.11051">
        <ele>829.4</ele>
        <time>2015-09-22T11:24:16Z</time>
      </trkpt>
      <trkpt lat="42.34797" lon="0.1106">
        <ele>829.3</ele>
        <time>2015-09-22T11:24:17Z</time>
      </trkpt>
      <trkpt lat="42.34794" lon="0.11066">
        <ele>829.3</ele>
        <time>2015-09-22T11:24:18Z</time>
      </trkpt>
      <trkpt lat="42.34792" lon="0.11072">
        <ele>829.1</ele>
        <time>2015-09-22T11:24:19Z</time>
      </trkpt>
      <trkpt lat="42.34789" lon="0.11078">
        <ele>828.8</ele>
        <time>2015-09-22T11:24:20Z</time>
      </trkpt>
      <trkpt lat="42.34786" lon="0.11085">
        <ele>828.3</ele>
        <time>2015-09-22T11:24:21Z</time>
      </trkpt>
      <trkpt lat="42.34783" lon="0.11091">
        <ele>827.8</ele>
        <time>2015-09-22T11:24:22Z</time>
      </trkpt>
      <trkpt lat="42.34781" lon="0.11097">
        <ele>827.3</ele>
        <time>2015-09-22T11:24:23Z</time>
      </trkpt>
      <trkpt lat="42.34779" lon="0.11104">
        <ele>826.7</ele>
        <time>2015-09-22T11:24:24Z</time>
      </trkpt>
      <trkpt lat="42.34777" lon="0.11111">
        <ele>826.1</ele>
        <time>2015-09-22T11:24:25Z</time>
      </trkpt>
      <trkpt lat="42.34775" lon="0.11118">
        <ele>825.5</ele>
        <time>2015-09-22T11:24:26Z</time>
      </trkpt>
      <trkpt lat="42.34772" lon="0.11124">
        <ele>824.9</ele>
        <time>2015-09-22T11:24:27Z</time>
      </trkpt>
      <trkpt lat="42.3477" lon="0.11131">
        <ele>824.3</ele>
        <time>2015-09-22T11:24:28Z</time>
      </trkpt>
      <trkpt lat="42.34769" lon="0.11137">
        <ele>823.7</ele>
        <time>2015-09-22T11:24:29Z</time>
      </trkpt>
      <trkpt lat="42.34766" lon="0.11143">
        <ele>823</ele>
        <time>2015-09-22T11:24:30Z</time>
      </trkpt>
      <trkpt lat="42.34763" lon="0.11148">
        <ele>822.4</ele>
        <time>2015-09-22T11:24:31Z</time>
      </trkpt>
      <trkpt lat="42.34759" lon="0.11151">
        <ele>821.9</ele>
        <time>2015-09-22T11:24:32Z</time>
      </trkpt>
      <trkpt lat="42.34754" lon="0.11154">
        <ele>821.4</ele>
        <time>2015-09-22T11:24:33Z</time>
      </trkpt>
      <trkpt lat="42.3475" lon="0.11156">
        <ele>820.9</ele>
        <time>2015-09-22T11:24:34Z</time>
      </trkpt>
      <trkpt lat="42.34745" lon="0.11159">
        <ele>820.3</ele>
        <time>2015-09-22T11:24:35Z</time>
      </trkpt>
      <trkpt lat="42.34741" lon="0.11163">
        <ele>819.6</ele>
        <time>2015-09-22T11:24:36Z</time>
      </trkpt>
      <trkpt lat="42.34737" lon="0.11167">
        <ele>819</ele>
        <time>2015-09-22T11:24:37Z</time>
      </trkpt>
      <trkpt lat="42.34734" lon="0.11171">
        <ele>818.5</ele>
        <time>2015-09-22T11:24:38Z</time>
      </trkpt>
      <trkpt lat="42.3473" lon="0.11174">
        <ele>817.9</ele>
        <time>2015-09-22T11:24:39Z</time>
      </trkpt>
      <trkpt lat="42.34727" lon="0.11177">
        <ele>817.4</ele>
        <time>2015-09-22T11:24:40Z</time>
      </trkpt>
      <trkpt lat="42.34724" lon="0.11181">
        <ele>816.8</ele>
        <time>2015-09-22T11:24:41Z</time>
      </trkpt>
      <trkpt lat="42.34721" lon="0.11184">
        <ele>816.3</ele>
        <time>2015-09-22T11:24:42Z</time>
      </trkpt>
      <trkpt lat="42.34717" lon="0.11187">
        <ele>815.8</ele>
        <time>2015-09-22T11:24:43Z</time>
      </trkpt>
      <trkpt lat="42.34714" lon="0.11189">
        <ele>815.3</ele>
        <time>2015-09-22T11:24:44Z</time>
      </trkpt>
      <trkpt lat="42.34712" lon="0.11194">
        <ele>814.7</ele>
        <time>2015-09-22T11:24:45Z</time>
      </trkpt>
      <trkpt lat="42.34709" lon="0.11198">
        <ele>814</ele>
        <time>2015-09-22T11:24:46Z</time>
      </trkpt>
      <trkpt lat="42.34705" lon="0.11202">
        <ele>813.4</ele>
        <time>2015-09-22T11:24:47Z</time>
      </trkpt>
      <trkpt lat="42.34701" lon="0.11205">
        <ele>812.9</ele>
        <time>2015-09-22T11:24:48Z</time>
      </trkpt>
      <trkpt lat="42.34697" lon="0.11208">
        <ele>812.2</ele>
        <time>2015-09-22T11:24:49Z</time>
      </trkpt>
      <trkpt lat="42.34693" lon="0.11212">
        <ele>811.8</ele>
        <time>2015-09-22T11:24:50Z</time>
      </trkpt>
      <trkpt lat="42.34689" lon="0.11217">
        <ele>811.3</ele>
        <time>2015-09-22T11:24:51Z</time>
      </trkpt>
      <trkpt lat="42.34686" lon="0.11222">
        <ele>810.9</ele>
        <time>2015-09-22T11:24:52Z</time>
      </trkpt>
      <trkpt lat="42.34683" lon="0.11228">
        <ele>810.3</ele>
        <time>2015-09-22T11:24:53Z</time>
      </trkpt>
      <trkpt lat="42.3468" lon="0.11233">
        <ele>809.8</ele>
        <time>2015-09-22T11:24:54Z</time>
      </trkpt>
      <trkpt lat="42.34677" lon="0.11239">
        <ele>809.2</ele>
        <time>2015-09-22T11:24:55Z</time>
      </trkpt>
      <trkpt lat="42.34675" lon="0.11244">
        <ele>808.6</ele>
        <time>2015-09-22T11:24:56Z</time>
      </trkpt>
      <trkpt lat="42.34672" lon="0.1125">
        <ele>807.9</ele>
        <time>2015-09-22T11:24:57Z</time>
      </trkpt>
      <trkpt lat="42.34668" lon="0.11255">
        <ele>807.1</ele>
        <time>2015-09-22T11:24:58Z</time>
      </trkpt>
      <trkpt lat="42.34664" lon="0.11259">
        <ele>806.2</ele>
        <time>2015-09-22T11:24:59Z</time>
      </trkpt>
      <trkpt lat="42.34659" lon="0.11262">
        <ele>805.4</ele>
        <time>2015-09-22T11:25:00Z</time>
      </trkpt>
      <trkpt lat="42.34655" lon="0.11262">
        <ele>804.8</ele>
        <time>2015-09-22T11:25:01Z</time>
      </trkpt>
      <trkpt lat="42.34652" lon="0.11264">
        <ele>804.3</ele>
        <time>2015-09-22T11:25:03Z</time>
      </trkpt>
      <trkpt lat="42.34649" lon="0.11265">
        <ele>803.7</ele>
        <time>2015-09-22T11:25:06Z</time>
      </trkpt>
      <trkpt lat="42.34652" lon="0.11267">
        <ele>803.9</ele>
        <time>2015-09-22T11:25:14Z</time>
      </trkpt>
      <trkpt lat="42.34655" lon="0.11269">
        <ele>804.2</ele>
        <time>2015-09-22T11:25:18Z</time>
      </trkpt>
      <trkpt lat="42.34657" lon="0.11272">
        <ele>804.3</ele>
        <time>2015-09-22T11:25:22Z</time>
      </trkpt>
      <trkpt lat="42.34656" lon="0.11275">
        <ele>803.9</ele>
        <time>2015-09-22T11:25:25Z</time>
      </trkpt>
      <trkpt lat="42.34652" lon="0.11276">
        <ele>803.3</ele>
        <time>2015-09-22T11:25:28Z</time>
      </trkpt>
      <trkpt lat="42.34649" lon="0.11277">
        <ele>802.6</ele>
        <time>2015-09-22T11:25:29Z</time>
      </trkpt>
      <trkpt lat="42.34645" lon="0.11277">
        <ele>802</ele>
        <time>2015-09-22T11:25:30Z</time>
      </trkpt>
      <trkpt lat="42.34641" lon="0.11276">
        <ele>801.4</ele>
        <time>2015-09-22T11:25:31Z</time>
      </trkpt>
      <trkpt lat="42.34637" lon="0.11274">
        <ele>801</ele>
        <time>2015-09-22T11:25:32Z</time>
      </trkpt>
      <trkpt lat="42.34633" lon="0.11271">
        <ele>800.6</ele>
        <time>2015-09-22T11:25:33Z</time>
      </trkpt>
      <trkpt lat="42.34629" lon="0.1127">
        <ele>800.2</ele>
        <time>2015-09-22T11:25:34Z</time>
      </trkpt>
      <trkpt lat="42.34624" lon="0.11268">
        <ele>799.7</ele>
        <time>2015-09-22T11:25:35Z</time>
      </trkpt>
      <trkpt lat="42.34621" lon="0.11266">
        <ele>799.7</ele>
        <time>2015-09-22T11:25:36Z</time>
      </trkpt>
      <trkpt lat="42.34618" lon="0.11263">
        <ele>799.7</ele>
        <time>2015-09-22T11:25:37Z</time>
      </trkpt>
      <trkpt lat="42.34614" lon="0.11261">
        <ele>799.6</ele>
        <time>2015-09-22T11:25:38Z</time>
      </trkpt>
      <trkpt lat="42.34611" lon="0.11261">
        <ele>799.3</ele>
        <time>2015-09-22T11:25:39Z</time>
      </trkpt>
      <trkpt lat="42.34608" lon="0.11262">
        <ele>798.9</ele>
        <time>2015-09-22T11:25:40Z</time>
      </trkpt>
      <trkpt lat="42.34606" lon="0.11264">
        <ele>798.5</ele>
        <time>2015-09-22T11:25:41Z</time>
      </trkpt>
      <trkpt lat="42.34602" lon="0.11269">
        <ele>797.6</ele>
        <time>2015-09-22T11:25:43Z</time>
      </trkpt>
      <trkpt lat="42.34602" lon="0.11275">
        <ele>796.9</ele>
        <time>2015-09-22T11:25:45Z</time>
      </trkpt>
      <trkpt lat="42.34604" lon="0.1128">
        <ele>796.5</ele>
        <time>2015-09-22T11:25:47Z</time>
      </trkpt>
      <trkpt lat="42.34604" lon="0.11285">
        <ele>796</ele>
        <time>2015-09-22T11:25:49Z</time>
      </trkpt>
      <trkpt lat="42.34601" lon="0.11287">
        <ele>795.5</ele>
        <time>2015-09-22T11:25:51Z</time>
      </trkpt>
      <trkpt lat="42.34597" lon="0.11289">
        <ele>795</ele>
        <time>2015-09-22T11:25:53Z</time>
      </trkpt>
      <trkpt lat="42.34593" lon="0.1129">
        <ele>794.5</ele>
        <time>2015-09-22T11:25:55Z</time>
      </trkpt>
      <trkpt lat="42.34588" lon="0.11287">
        <ele>794.4</ele>
        <time>2015-09-22T11:25:57Z</time>
      </trkpt>
      <trkpt lat="42.34583" lon="0.11285">
        <ele>794.2</ele>
        <time>2015-09-22T11:25:58Z</time>
      </trkpt>
      <trkpt lat="42.34579" lon="0.11283">
        <ele>794</ele>
        <time>2015-09-22T11:25:59Z</time>
      </trkpt>
      <trkpt lat="42.34575" lon="0.11282">
        <ele>793.8</ele>
        <time>2015-09-22T11:26:00Z</time>
      </trkpt>
      <trkpt lat="42.34572" lon="0.1128">
        <ele>793.7</ele>
        <time>2015-09-22T11:26:01Z</time>
      </trkpt>
      <trkpt lat="42.34568" lon="0.11276">
        <ele>793.7</ele>
        <time>2015-09-22T11:26:03Z</time>
      </trkpt>
      <trkpt lat="42.34564" lon="0.11272">
        <ele>793.7</ele>
        <time>2015-09-22T11:26:05Z</time>
      </trkpt>
      <trkpt lat="42.34561" lon="0.11271">
        <ele>793.5</ele>
        <time>2015-09-22T11:26:06Z</time>
      </trkpt>
      <trkpt lat="42.34557" lon="0.11271">
        <ele>793.2</ele>
        <time>2015-09-22T11:26:07Z</time>
      </trkpt>
      <trkpt lat="42.34552" lon="0.11272">
        <ele>792.7</ele>
        <time>2015-09-22T11:26:08Z</time>
      </trkpt>
      <trkpt lat="42.34548" lon="0.11274">
        <ele>792.1</ele>
        <time>2015-09-22T11:26:09Z</time>
      </trkpt>
      <trkpt lat="42.34544" lon="0.11275">
        <ele>791.7</ele>
        <time>2015-09-22T11:26:10Z</time>
      </trkpt>
      <trkpt lat="42.34542" lon="0.1128">
        <ele>791</ele>
        <time>2015-09-22T11:26:11Z</time>
      </trkpt>
      <trkpt lat="42.34539" lon="0.11282">
        <ele>790.6</ele>
        <time>2015-09-22T11:26:12Z</time>
      </trkpt>
      <trkpt lat="42.34536" lon="0.11283">
        <ele>790.2</ele>
        <time>2015-09-22T11:26:13Z</time>
      </trkpt>
      <trkpt lat="42.34533" lon="0.11284">
        <ele>789.9</ele>
        <time>2015-09-22T11:26:14Z</time>
      </trkpt>
      <trkpt lat="42.3453" lon="0.11286">
        <ele>789.6</ele>
        <time>2015-09-22T11:26:15Z</time>
      </trkpt>
      <trkpt lat="42.34528" lon="0.11292">
        <ele>788.8</ele>
        <time>2015-09-22T11:26:17Z</time>
      </trkpt>
      <trkpt lat="42.34529" lon="0.11296">
        <ele>789</ele>
        <time>2015-09-22T11:26:18Z</time>
      </trkpt>
      <trkpt lat="42.34531" lon="0.11299">
        <ele>789.2</ele>
        <time>2015-09-22T11:26:19Z</time>
      </trkpt>
      <trkpt lat="42.34533" lon="0.11303">
        <ele>789.3</ele>
        <time>2015-09-22T11:26:21Z</time>
      </trkpt>
      <trkpt lat="42.34532" lon="0.11308">
        <ele>789.3</ele>
        <time>2015-09-22T11:26:23Z</time>
      </trkpt>
      <trkpt lat="42.34527" lon="0.11313">
        <ele>789.1</ele>
        <time>2015-09-22T11:26:25Z</time>
      </trkpt>
      <trkpt lat="42.34524" lon="0.11315">
        <ele>789</ele>
        <time>2015-09-22T11:26:26Z</time>
      </trkpt>
      <trkpt lat="42.34521" lon="0.11317">
        <ele>788.9</ele>
        <time>2015-09-22T11:26:27Z</time>
      </trkpt>
      <trkpt lat="42.34519" lon="0.11321">
        <ele>788.9</ele>
        <time>2015-09-22T11:26:28Z</time>
      </trkpt>
      <trkpt lat="42.34519" lon="0.11325">
        <ele>788.9</ele>
        <time>2015-09-22T11:26:29Z</time>
      </trkpt>
      <trkpt lat="42.34518" lon="0.11329">
        <ele>789</ele>
        <time>2015-09-22T11:26:30Z</time>
      </trkpt>
      <trkpt lat="42.34518" lon="0.11334">
        <ele>789.2</ele>
        <time>2015-09-22T11:26:31Z</time>
      </trkpt>
      <trkpt lat="42.34518" lon="0.11338">
        <ele>789.3</ele>
        <time>2015-09-22T11:26:32Z</time>
      </trkpt>
      <trkpt lat="42.34518" lon="0.11342">
        <ele>789.4</ele>
        <time>2015-09-22T11:26:33Z</time>
      </trkpt>
      <trkpt lat="42.34517" lon="0.11346">
        <ele>789.5</ele>
        <time>2015-09-22T11:26:34Z</time>
      </trkpt>
      <trkpt lat="42.34515" lon="0.11349">
        <ele>789.5</ele>
        <time>2015-09-22T11:26:35Z</time>
      </trkpt>
      <trkpt lat="42.34512" lon="0.11352">
        <ele>789.6</ele>
        <time>2015-09-22T11:26:36Z</time>
      </trkpt>
      <trkpt lat="42.34508" lon="0.11355">
        <ele>789.6</ele>
        <time>2015-09-22T11:26:37Z</time>
      </trkpt>
      <trkpt lat="42.34505" lon="0.11357">
        <ele>789.7</ele>
        <time>2015-09-22T11:26:38Z</time>
      </trkpt>
      <trkpt lat="42.34501" lon="0.11359">
        <ele>789.7</ele>
        <time>2015-09-22T11:26:39Z</time>
      </trkpt>
      <trkpt lat="42.34498" lon="0.11361">
        <ele>789.8</ele>
        <time>2015-09-22T11:26:40Z</time>
      </trkpt>
      <trkpt lat="42.34494" lon="0.11365">
        <ele>790</ele>
        <time>2015-09-22T11:26:41Z</time>
      </trkpt>
      <trkpt lat="42.3449" lon="0.11368">
        <ele>790.2</ele>
        <time>2015-09-22T11:26:42Z</time>
      </trkpt>
      <trkpt lat="42.34487" lon="0.11373">
        <ele>790.5</ele>
        <time>2015-09-22T11:26:43Z</time>
      </trkpt>
      <trkpt lat="42.3448" lon="0.1138">
        <ele>790.6</ele>
        <time>2015-09-22T11:26:44Z</time>
      </trkpt>
      <trkpt lat="42.34475" lon="0.11383">
        <ele>790.7</ele>
        <time>2015-09-22T11:26:45Z</time>
      </trkpt>
      <trkpt lat="42.34472" lon="0.11387">
        <ele>790.8</ele>
        <time>2015-09-22T11:26:46Z</time>
      </trkpt>
      <trkpt lat="42.3447" lon="0.11393">
        <ele>790.9</ele>
        <time>2015-09-22T11:26:47Z</time>
      </trkpt>
      <trkpt lat="42.34467" lon="0.11399">
        <ele>791</ele>
        <time>2015-09-22T11:26:48Z</time>
      </trkpt>
      <trkpt lat="42.34463" lon="0.11404">
        <ele>791.3</ele>
        <time>2015-09-22T11:26:49Z</time>
      </trkpt>
      <trkpt lat="42.34461" lon="0.11409">
        <ele>791.6</ele>
        <time>2015-09-22T11:26:50Z</time>
      </trkpt>
      <trkpt lat="42.34458" lon="0.11414">
        <ele>791.9</ele>
        <time>2015-09-22T11:26:51Z</time>
      </trkpt>
      <trkpt lat="42.34455" lon="0.11418">
        <ele>792</ele>
        <time>2015-09-22T11:26:52Z</time>
      </trkpt>
      <trkpt lat="42.34454" lon="0.11424">
        <ele>792.2</ele>
        <time>2015-09-22T11:26:53Z</time>
      </trkpt>
      <trkpt lat="42.34453" lon="0.11432">
        <ele>792.4</ele>
        <time>2015-09-22T11:26:54Z</time>
      </trkpt>
      <trkpt lat="42.34449" lon="0.11436">
        <ele>792.6</ele>
        <time>2015-09-22T11:26:55Z</time>
      </trkpt>
      <trkpt lat="42.34446" lon="0.1144">
        <ele>792.8</ele>
        <time>2015-09-22T11:26:56Z</time>
      </trkpt>
      <trkpt lat="42.34443" lon="0.11445">
        <ele>793</ele>
        <time>2015-09-22T11:26:57Z</time>
      </trkpt>
      <trkpt lat="42.34441" lon="0.1145">
        <ele>793.3</ele>
        <time>2015-09-22T11:26:58Z</time>
      </trkpt>
      <trkpt lat="42.34438" lon="0.11455">
        <ele>793.6</ele>
        <time>2015-09-22T11:26:59Z</time>
      </trkpt>
      <trkpt lat="42.34434" lon="0.11459">
        <ele>793.7</ele>
        <time>2015-09-22T11:27:00Z</time>
      </trkpt>
      <trkpt lat="42.34431" lon="0.11464">
        <ele>792.9</ele>
        <time>2015-09-22T11:27:01Z</time>
      </trkpt>
      <trkpt lat="42.34428" lon="0.11467">
        <ele>792.4</ele>
        <time>2015-09-22T11:27:02Z</time>
      </trkpt>
      <trkpt lat="42.34425" lon="0.11471">
        <ele>791.9</ele>
        <time>2015-09-22T11:27:03Z</time>
      </trkpt>
      <trkpt lat="42.34422" lon="0.11473">
        <ele>791.6</ele>
        <time>2015-09-22T11:27:04Z</time>
      </trkpt>
      <trkpt lat="42.34419" lon="0.11475">
        <ele>791.3</ele>
        <time>2015-09-22T11:27:05Z</time>
      </trkpt>
      <trkpt lat="42.34416" lon="0.1148">
        <ele>790.7</ele>
        <time>2015-09-22T11:27:07Z</time>
      </trkpt>
      <trkpt lat="42.34413" lon="0.11486">
        <ele>789.7</ele>
        <time>2015-09-22T11:27:09Z</time>
      </trkpt>
      <trkpt lat="42.34411" lon="0.1149">
        <ele>789.1</ele>
        <time>2015-09-22T11:27:10Z</time>
      </trkpt>
      <trkpt lat="42.34409" lon="0.11496">
        <ele>788.4</ele>
        <time>2015-09-22T11:27:11Z</time>
      </trkpt>
      <trkpt lat="42.34406" lon="0.115">
        <ele>787.7</ele>
        <time>2015-09-22T11:27:12Z</time>
      </trkpt>
      <trkpt lat="42.34404" lon="0.11505">
        <ele>787.1</ele>
        <time>2015-09-22T11:27:13Z</time>
      </trkpt>
      <trkpt lat="42.344" lon="0.11509">
        <ele>786.7</ele>
        <time>2015-09-22T11:27:14Z</time>
      </trkpt>
      <trkpt lat="42.34397" lon="0.11512">
        <ele>786.5</ele>
        <time>2015-09-22T11:27:15Z</time>
      </trkpt>
      <trkpt lat="42.34394" lon="0.11515">
        <ele>786.2</ele>
        <time>2015-09-22T11:27:16Z</time>
      </trkpt>
      <trkpt lat="42.34392" lon="0.11519">
        <ele>785.8</ele>
        <time>2015-09-22T11:27:17Z</time>
      </trkpt>
      <trkpt lat="42.3439" lon="0.11525">
        <ele>785</ele>
        <time>2015-09-22T11:27:19Z</time>
      </trkpt>
      <trkpt lat="42.34388" lon="0.11529">
        <ele>784.6</ele>
        <time>2015-09-22T11:27:20Z</time>
      </trkpt>
      <trkpt lat="42.34383" lon="0.11534">
        <ele>784.4</ele>
        <time>2015-09-22T11:27:21Z</time>
      </trkpt>
      <trkpt lat="42.3438" lon="0.11538">
        <ele>784</ele>
        <time>2015-09-22T11:27:22Z</time>
      </trkpt>
      <trkpt lat="42.34375" lon="0.11541">
        <ele>784</ele>
        <time>2015-09-22T11:27:23Z</time>
      </trkpt>
      <trkpt lat="42.34371" lon="0.11546">
        <ele>782.7</ele>
        <time>2015-09-22T11:27:24Z</time>
      </trkpt>
      <trkpt lat="42.34368" lon="0.11552">
        <ele>781.3</ele>
        <time>2015-09-22T11:27:25Z</time>
      </trkpt>
      <trkpt lat="42.34364" lon="0.11554">
        <ele>780.4</ele>
        <time>2015-09-22T11:27:26Z</time>
      </trkpt>
      <trkpt lat="42.34361" lon="0.11557">
        <ele>779.6</ele>
        <time>2015-09-22T11:27:27Z</time>
      </trkpt>
      <trkpt lat="42.34358" lon="0.11563">
        <ele>778.2</ele>
        <time>2015-09-22T11:27:28Z</time>
      </trkpt>
      <trkpt lat="42.34355" lon="0.11569">
        <ele>777</ele>
        <time>2015-09-22T11:27:29Z</time>
      </trkpt>
      <trkpt lat="42.34352" lon="0.11575">
        <ele>775.7</ele>
        <time>2015-09-22T11:27:30Z</time>
      </trkpt>
      <trkpt lat="42.34348" lon="0.1158">
        <ele>774.4</ele>
        <time>2015-09-22T11:27:31Z</time>
      </trkpt>
      <trkpt lat="42.34343" lon="0.11584">
        <ele>773.2</ele>
        <time>2015-09-22T11:27:32Z</time>
      </trkpt>
      <trkpt lat="42.34338" lon="0.11587">
        <ele>772.4</ele>
        <time>2015-09-22T11:27:33Z</time>
      </trkpt>
      <trkpt lat="42.34334" lon="0.11589">
        <ele>771.7</ele>
        <time>2015-09-22T11:27:34Z</time>
      </trkpt>
      <trkpt lat="42.34329" lon="0.1159">
        <ele>771.2</ele>
        <time>2015-09-22T11:27:35Z</time>
      </trkpt>
      <trkpt lat="42.34326" lon="0.11593">
        <ele>770.5</ele>
        <time>2015-09-22T11:27:36Z</time>
      </trkpt>
      <trkpt lat="42.34324" lon="0.11598">
        <ele>769.7</ele>
        <time>2015-09-22T11:27:37Z</time>
      </trkpt>
      <trkpt lat="42.34322" lon="0.116">
        <ele>769.1</ele>
        <time>2015-09-22T11:27:38Z</time>
      </trkpt>
      <trkpt lat="42.34319" lon="0.11602">
        <ele>768.6</ele>
        <time>2015-09-22T11:27:39Z</time>
      </trkpt>
      <trkpt lat="42.34316" lon="0.11605">
        <ele>768.1</ele>
        <time>2015-09-22T11:27:40Z</time>
      </trkpt>
      <trkpt lat="42.34315" lon="0.11609">
        <ele>767.4</ele>
        <time>2015-09-22T11:27:41Z</time>
      </trkpt>
      <trkpt lat="42.34313" lon="0.11613">
        <ele>766.7</ele>
        <time>2015-09-22T11:27:42Z</time>
      </trkpt>
      <trkpt lat="42.34309" lon="0.11617">
        <ele>766.1</ele>
        <time>2015-09-22T11:27:43Z</time>
      </trkpt>
      <trkpt lat="42.34306" lon="0.1162">
        <ele>765.4</ele>
        <time>2015-09-22T11:27:44Z</time>
      </trkpt>
      <trkpt lat="42.34302" lon="0.11623">
        <ele>764.9</ele>
        <time>2015-09-22T11:27:45Z</time>
      </trkpt>
      <trkpt lat="42.34298" lon="0.11625">
        <ele>764.4</ele>
        <time>2015-09-22T11:27:46Z</time>
      </trkpt>
      <trkpt lat="42.34295" lon="0.11626">
        <ele>764.1</ele>
        <time>2015-09-22T11:27:47Z</time>
      </trkpt>
      <trkpt lat="42.34291" lon="0.11625">
        <ele>763.9</ele>
        <time>2015-09-22T11:27:48Z</time>
      </trkpt>
      <trkpt lat="42.34288" lon="0.11623">
        <ele>763.6</ele>
        <time>2015-09-22T11:27:49Z</time>
      </trkpt>
      <trkpt lat="42.34284" lon="0.11623">
        <ele>763.3</ele>
        <time>2015-09-22T11:27:50Z</time>
      </trkpt>
      <trkpt lat="42.3428" lon="0.11623">
        <ele>762.7</ele>
        <time>2015-09-22T11:27:51Z</time>
      </trkpt>
      <trkpt lat="42.34276" lon="0.11623">
        <ele>762.2</ele>
        <time>2015-09-22T11:27:52Z</time>
      </trkpt>
      <trkpt lat="42.34273" lon="0.11623">
        <ele>761.8</ele>
        <time>2015-09-22T11:27:53Z</time>
      </trkpt>
      <trkpt lat="42.3427" lon="0.1162">
        <ele>761.8</ele>
        <time>2015-09-22T11:27:54Z</time>
      </trkpt>
      <trkpt lat="42.34269" lon="0.11616">
        <ele>762.1</ele>
        <time>2015-09-22T11:27:55Z</time>
      </trkpt>
      <trkpt lat="42.34267" lon="0.11612">
        <ele>762.4</ele>
        <time>2015-09-22T11:27:56Z</time>
      </trkpt>
      <trkpt lat="42.34264" lon="0.11609">
        <ele>762.5</ele>
        <time>2015-09-22T11:27:57Z</time>
      </trkpt>
      <trkpt lat="42.34261" lon="0.11608">
        <ele>762.2</ele>
        <time>2015-09-22T11:27:58Z</time>
      </trkpt>
      <trkpt lat="42.34257" lon="0.11609">
        <ele>761.7</ele>
        <time>2015-09-22T11:27:59Z</time>
      </trkpt>
      <trkpt lat="42.34254" lon="0.11611">
        <ele>760.9</ele>
        <time>2015-09-22T11:28:00Z</time>
      </trkpt>
      <trkpt lat="42.34249" lon="0.11614">
        <ele>759.9</ele>
        <time>2015-09-22T11:28:01Z</time>
      </trkpt>
      <trkpt lat="42.34244" lon="0.11622">
        <ele>758.1</ele>
        <time>2015-09-22T11:28:02Z</time>
      </trkpt>
      <trkpt lat="42.34239" lon="0.11626">
        <ele>757.1</ele>
        <time>2015-09-22T11:28:03Z</time>
      </trkpt>
      <trkpt lat="42.34235" lon="0.11629">
        <ele>756.4</ele>
        <time>2015-09-22T11:28:04Z</time>
      </trkpt>
      <trkpt lat="42.34232" lon="0.11633">
        <ele>755.8</ele>
        <time>2015-09-22T11:28:05Z</time>
      </trkpt>
      <trkpt lat="42.3423" lon="0.11639">
        <ele>755.4</ele>
        <time>2015-09-22T11:28:06Z</time>
      </trkpt>
      <trkpt lat="42.34228" lon="0.11644">
        <ele>754.8</ele>
        <time>2015-09-22T11:28:07Z</time>
      </trkpt>
      <trkpt lat="42.34226" lon="0.1165">
        <ele>754.3</ele>
        <time>2015-09-22T11:28:08Z</time>
      </trkpt>
      <trkpt lat="42.34223" lon="0.11655">
        <ele>753.7</ele>
        <time>2015-09-22T11:28:09Z</time>
      </trkpt>
      <trkpt lat="42.34219" lon="0.1166">
        <ele>753</ele>
        <time>2015-09-22T11:28:10Z</time>
      </trkpt>
      <trkpt lat="42.34214" lon="0.11665">
        <ele>752.3</ele>
        <time>2015-09-22T11:28:11Z</time>
      </trkpt>
      <trkpt lat="42.34211" lon="0.11671">
        <ele>751.6</ele>
        <time>2015-09-22T11:28:12Z</time>
      </trkpt>
      <trkpt lat="42.34208" lon="0.11677">
        <ele>751</ele>
        <time>2015-09-22T11:28:13Z</time>
      </trkpt>
      <trkpt lat="42.34204" lon="0.11683">
        <ele>750.3</ele>
        <time>2015-09-22T11:28:14Z</time>
      </trkpt>
      <trkpt lat="42.34201" lon="0.11691">
        <ele>749.7</ele>
        <time>2015-09-22T11:28:15Z</time>
      </trkpt>
      <trkpt lat="42.34198" lon="0.11698">
        <ele>748.9</ele>
        <time>2015-09-22T11:28:16Z</time>
      </trkpt>
      <trkpt lat="42.34194" lon="0.11704">
        <ele>748.1</ele>
        <time>2015-09-22T11:28:17Z</time>
      </trkpt>
      <trkpt lat="42.34189" lon="0.1171">
        <ele>747.3</ele>
        <time>2015-09-22T11:28:18Z</time>
      </trkpt>
      <trkpt lat="42.34185" lon="0.11717">
        <ele>747.1</ele>
        <time>2015-09-22T11:28:19Z</time>
      </trkpt>
      <trkpt lat="42.3418" lon="0.11722">
        <ele>746.8</ele>
        <time>2015-09-22T11:28:20Z</time>
      </trkpt>
      <trkpt lat="42.34175" lon="0.11728">
        <ele>746.7</ele>
        <time>2015-09-22T11:28:21Z</time>
      </trkpt>
      <trkpt lat="42.34171" lon="0.11732">
        <ele>746.5</ele>
        <time>2015-09-22T11:28:22Z</time>
      </trkpt>
      <trkpt lat="42.34167" lon="0.11736">
        <ele>746.4</ele>
        <time>2015-09-22T11:28:23Z</time>
      </trkpt>
      <trkpt lat="42.34164" lon="0.1174">
        <ele>746.4</ele>
        <time>2015-09-22T11:28:24Z</time>
      </trkpt>
      <trkpt lat="42.3416" lon="0.11742">
        <ele>746.1</ele>
        <time>2015-09-22T11:28:25Z</time>
      </trkpt>
      <trkpt lat="42.34156" lon="0.11743">
        <ele>745.8</ele>
        <time>2015-09-22T11:28:26Z</time>
      </trkpt>
      <trkpt lat="42.34153" lon="0.11744">
        <ele>745.5</ele>
        <time>2015-09-22T11:28:27Z</time>
      </trkpt>
      <trkpt lat="42.34149" lon="0.11748">
        <ele>745.6</ele>
        <time>2015-09-22T11:28:28Z</time>
      </trkpt>
      <trkpt lat="42.34146" lon="0.11751">
        <ele>745.6</ele>
        <time>2015-09-22T11:28:29Z</time>
      </trkpt>
      <trkpt lat="42.34142" lon="0.11752">
        <ele>745.3</ele>
        <time>2015-09-22T11:28:30Z</time>
      </trkpt>
      <trkpt lat="42.34136" lon="0.11754">
        <ele>745.1</ele>
        <time>2015-09-22T11:28:31Z</time>
      </trkpt>
      <trkpt lat="42.34132" lon="0.11757">
        <ele>745</ele>
        <time>2015-09-22T11:28:32Z</time>
      </trkpt>
      <trkpt lat="42.34127" lon="0.1176">
        <ele>744.9</ele>
        <time>2015-09-22T11:28:33Z</time>
      </trkpt>
      <trkpt lat="42.34122" lon="0.11762">
        <ele>744.6</ele>
        <time>2015-09-22T11:28:34Z</time>
      </trkpt>
      <trkpt lat="42.34116" lon="0.11765">
        <ele>744.2</ele>
        <time>2015-09-22T11:28:35Z</time>
      </trkpt>
      <trkpt lat="42.34111" lon="0.11767">
        <ele>743.6</ele>
        <time>2015-09-22T11:28:36Z</time>
      </trkpt>
      <trkpt lat="42.34106" lon="0.11768">
        <ele>743.1</ele>
        <time>2015-09-22T11:28:37Z</time>
      </trkpt>
      <trkpt lat="42.34101" lon="0.11771">
        <ele>742.7</ele>
        <time>2015-09-22T11:28:38Z</time>
      </trkpt>
      <trkpt lat="42.34096" lon="0.11772">
        <ele>742.2</ele>
        <time>2015-09-22T11:28:39Z</time>
      </trkpt>
      <trkpt lat="42.34091" lon="0.11775">
        <ele>741.7</ele>
        <time>2015-09-22T11:28:40Z</time>
      </trkpt>
      <trkpt lat="42.34086" lon="0.11778">
        <ele>741.5</ele>
        <time>2015-09-22T11:28:41Z</time>
      </trkpt>
      <trkpt lat="42.34081" lon="0.1178">
        <ele>741</ele>
        <time>2015-09-22T11:28:42Z</time>
      </trkpt>
      <trkpt lat="42.34075" lon="0.11782">
        <ele>740.5</ele>
        <time>2015-09-22T11:28:43Z</time>
      </trkpt>
      <trkpt lat="42.34072" lon="0.11786">
        <ele>740.5</ele>
        <time>2015-09-22T11:28:44Z</time>
      </trkpt>
      <trkpt lat="42.34068" lon="0.11789">
        <ele>740.4</ele>
        <time>2015-09-22T11:28:45Z</time>
      </trkpt>
      <trkpt lat="42.34064" lon="0.11788">
        <ele>739.7</ele>
        <time>2015-09-22T11:28:46Z</time>
      </trkpt>
      <trkpt lat="42.3406" lon="0.1179">
        <ele>739.4</ele>
        <time>2015-09-22T11:28:47Z</time>
      </trkpt>
      <trkpt lat="42.34057" lon="0.11793">
        <ele>739.2</ele>
        <time>2015-09-22T11:28:48Z</time>
      </trkpt>
      <trkpt lat="42.34053" lon="0.11796">
        <ele>738.8</ele>
        <time>2015-09-22T11:28:49Z</time>
      </trkpt>
      <trkpt lat="42.34049" lon="0.11799">
        <ele>738.4</ele>
        <time>2015-09-22T11:28:50Z</time>
      </trkpt>
      <trkpt lat="42.34045" lon="0.11803">
        <ele>738</ele>
        <time>2015-09-22T11:28:51Z</time>
      </trkpt>
      <trkpt lat="42.34043" lon="0.11805">
        <ele>737.8</ele>
        <time>2015-09-22T11:28:52Z</time>
      </trkpt>
      <trkpt lat="42.34039" lon="0.11811">
        <ele>737.4</ele>
        <time>2015-09-22T11:28:53Z</time>
      </trkpt>
      <trkpt lat="42.34035" lon="0.11815">
        <ele>736.7</ele>
        <time>2015-09-22T11:28:54Z</time>
      </trkpt>
      <trkpt lat="42.34032" lon="0.11817">
        <ele>736.1</ele>
        <time>2015-09-22T11:28:55Z</time>
      </trkpt>
      <trkpt lat="42.34029" lon="0.11818">
        <ele>735.6</ele>
        <time>2015-09-22T11:28:56Z</time>
      </trkpt>
      <trkpt lat="42.34026" lon="0.1182">
        <ele>735.1</ele>
        <time>2015-09-22T11:28:57Z</time>
      </trkpt>
      <trkpt lat="42.34024" lon="0.11822">
        <ele>734.7</ele>
        <time>2015-09-22T11:28:58Z</time>
      </trkpt>
      <trkpt lat="42.34021" lon="0.11826">
        <ele>734.3</ele>
        <time>2015-09-22T11:29:00Z</time>
      </trkpt>
      <trkpt lat="42.34018" lon="0.11828">
        <ele>733.9</ele>
        <time>2015-09-22T11:29:01Z</time>
      </trkpt>
      <trkpt lat="42.34015" lon="0.11833">
        <ele>733.3</ele>
        <time>2015-09-22T11:29:02Z</time>
      </trkpt>
      <trkpt lat="42.3401" lon="0.11836">
        <ele>732.6</ele>
        <time>2015-09-22T11:29:03Z</time>
      </trkpt>
      <trkpt lat="42.34007" lon="0.1184">
        <ele>732.1</ele>
        <time>2015-09-22T11:29:04Z</time>
      </trkpt>
      <trkpt lat="42.34003" lon="0.11844">
        <ele>731.5</ele>
        <time>2015-09-22T11:29:05Z</time>
      </trkpt>
      <trkpt lat="42.33999" lon="0.11846">
        <ele>730.7</ele>
        <time>2015-09-22T11:29:06Z</time>
      </trkpt>
      <trkpt lat="42.33994" lon="0.11849">
        <ele>729.8</ele>
        <time>2015-09-22T11:29:07Z</time>
      </trkpt>
      <trkpt lat="42.33989" lon="0.11852">
        <ele>729</ele>
        <time>2015-09-22T11:29:08Z</time>
      </trkpt>
      <trkpt lat="42.33985" lon="0.11856">
        <ele>728.3</ele>
        <time>2015-09-22T11:29:09Z</time>
      </trkpt>
      <trkpt lat="42.33981" lon="0.11861">
        <ele>727.8</ele>
        <time>2015-09-22T11:29:10Z</time>
      </trkpt>
      <trkpt lat="42.33978" lon="0.11867">
        <ele>727.5</ele>
        <time>2015-09-22T11:29:11Z</time>
      </trkpt>
      <trkpt lat="42.33974" lon="0.11871">
        <ele>727</ele>
        <time>2015-09-22T11:29:12Z</time>
      </trkpt>
      <trkpt lat="42.3397" lon="0.11875">
        <ele>726.3</ele>
        <time>2015-09-22T11:29:13Z</time>
      </trkpt>
      <trkpt lat="42.33966" lon="0.11879">
        <ele>725.7</ele>
        <time>2015-09-22T11:29:14Z</time>
      </trkpt>
      <trkpt lat="42.33962" lon="0.11882">
        <ele>725.1</ele>
        <time>2015-09-22T11:29:15Z</time>
      </trkpt>
      <trkpt lat="42.33958" lon="0.11884">
        <ele>724.6</ele>
        <time>2015-09-22T11:29:16Z</time>
      </trkpt>
      <trkpt lat="42.33954" lon="0.11888">
        <ele>724.2</ele>
        <time>2015-09-22T11:29:17Z</time>
      </trkpt>
      <trkpt lat="42.3395" lon="0.11892">
        <ele>723.9</ele>
        <time>2015-09-22T11:29:18Z</time>
      </trkpt>
      <trkpt lat="42.33945" lon="0.11896">
        <ele>723.5</ele>
        <time>2015-09-22T11:29:19Z</time>
      </trkpt>
      <trkpt lat="42.33941" lon="0.119">
        <ele>723.1</ele>
        <time>2015-09-22T11:29:20Z</time>
      </trkpt>
      <trkpt lat="42.33937" lon="0.11905">
        <ele>723</ele>
        <time>2015-09-22T11:29:21Z</time>
      </trkpt>
      <trkpt lat="42.33933" lon="0.1191">
        <ele>722.8</ele>
        <time>2015-09-22T11:29:22Z</time>
      </trkpt>
      <trkpt lat="42.33928" lon="0.11914">
        <ele>722.3</ele>
        <time>2015-09-22T11:29:23Z</time>
      </trkpt>
      <trkpt lat="42.33923" lon="0.11917">
        <ele>721.9</ele>
        <time>2015-09-22T11:29:24Z</time>
      </trkpt>
      <trkpt lat="42.33918" lon="0.11917">
        <ele>721.3</ele>
        <time>2015-09-22T11:29:25Z</time>
      </trkpt>
      <trkpt lat="42.33914" lon="0.11919">
        <ele>720.8</ele>
        <time>2015-09-22T11:29:26Z</time>
      </trkpt>
      <trkpt lat="42.33909" lon="0.11921">
        <ele>720.3</ele>
        <time>2015-09-22T11:29:27Z</time>
      </trkpt>
      <trkpt lat="42.33904" lon="0.11923">
        <ele>719.7</ele>
        <time>2015-09-22T11:29:28Z</time>
      </trkpt>
      <trkpt lat="42.33899" lon="0.11925">
        <ele>719.1</ele>
        <time>2015-09-22T11:29:29Z</time>
      </trkpt>
      <trkpt lat="42.33892" lon="0.11927">
        <ele>718.4</ele>
        <time>2015-09-22T11:29:30Z</time>
      </trkpt>
      <trkpt lat="42.33888" lon="0.11929">
        <ele>718</ele>
        <time>2015-09-22T11:29:31Z</time>
      </trkpt>
      <trkpt lat="42.33884" lon="0.11934">
        <ele>717.9</ele>
        <time>2015-09-22T11:29:32Z</time>
      </trkpt>
      <trkpt lat="42.33879" lon="0.11939">
        <ele>717.7</ele>
        <time>2015-09-22T11:29:33Z</time>
      </trkpt>
      <trkpt lat="42.33875" lon="0.11944">
        <ele>717.5</ele>
        <time>2015-09-22T11:29:34Z</time>
      </trkpt>
      <trkpt lat="42.33869" lon="0.11947">
        <ele>717.2</ele>
        <time>2015-09-22T11:29:35Z</time>
      </trkpt>
      <trkpt lat="42.33865" lon="0.11951">
        <ele>717</ele>
        <time>2015-09-22T11:29:36Z</time>
      </trkpt>
      <trkpt lat="42.3386" lon="0.11955">
        <ele>716.7</ele>
        <time>2015-09-22T11:29:37Z</time>
      </trkpt>
      <trkpt lat="42.33857" lon="0.1196">
        <ele>716.5</ele>
        <time>2015-09-22T11:29:38Z</time>
      </trkpt>
      <trkpt lat="42.33853" lon="0.11963">
        <ele>716.2</ele>
        <time>2015-09-22T11:29:39Z</time>
      </trkpt>
      <trkpt lat="42.33849" lon="0.11966">
        <ele>715.9</ele>
        <time>2015-09-22T11:29:40Z</time>
      </trkpt>
      <trkpt lat="42.33843" lon="0.11968">
        <ele>715.4</ele>
        <time>2015-09-22T11:29:41Z</time>
      </trkpt>
      <trkpt lat="42.33837" lon="0.11971">
        <ele>714.9</ele>
        <time>2015-09-22T11:29:42Z</time>
      </trkpt>
      <trkpt lat="42.33831" lon="0.11974">
        <ele>714.5</ele>
        <time>2015-09-22T11:29:43Z</time>
      </trkpt>
      <trkpt lat="42.33825" lon="0.11978">
        <ele>714.2</ele>
        <time>2015-09-22T11:29:44Z</time>
      </trkpt>
      <trkpt lat="42.33819" lon="0.11981">
        <ele>713.8</ele>
        <time>2015-09-22T11:29:45Z</time>
      </trkpt>
      <trkpt lat="42.33812" lon="0.11984">
        <ele>713.4</ele>
        <time>2015-09-22T11:29:46Z</time>
      </trkpt>
      <trkpt lat="42.33806" lon="0.11987">
        <ele>713.2</ele>
        <time>2015-09-22T11:29:47Z</time>
      </trkpt>
      <trkpt lat="42.33802" lon="0.11992">
        <ele>713.4</ele>
        <time>2015-09-22T11:29:48Z</time>
      </trkpt>
      <trkpt lat="42.33797" lon="0.11998">
        <ele>713.6</ele>
        <time>2015-09-22T11:29:49Z</time>
      </trkpt>
      <trkpt lat="42.33791" lon="0.12002">
        <ele>713.7</ele>
        <time>2015-09-22T11:29:50Z</time>
      </trkpt>
      <trkpt lat="42.33786" lon="0.12004">
        <ele>713.3</ele>
        <time>2015-09-22T11:29:51Z</time>
      </trkpt>
      <trkpt lat="42.33781" lon="0.12007">
        <ele>712.9</ele>
        <time>2015-09-22T11:29:52Z</time>
      </trkpt>
      <trkpt lat="42.33776" lon="0.1201">
        <ele>712.4</ele>
        <time>2015-09-22T11:29:53Z</time>
      </trkpt>
      <trkpt lat="42.33771" lon="0.12011">
        <ele>711.9</ele>
        <time>2015-09-22T11:29:54Z</time>
      </trkpt>
      <trkpt lat="42.33766" lon="0.12011">
        <ele>710.9</ele>
        <time>2015-09-22T11:29:55Z</time>
      </trkpt>
      <trkpt lat="42.33761" lon="0.1201">
        <ele>710.1</ele>
        <time>2015-09-22T11:29:56Z</time>
      </trkpt>
      <trkpt lat="42.33757" lon="0.12011">
        <ele>709.5</ele>
        <time>2015-09-22T11:29:57Z</time>
      </trkpt>
      <trkpt lat="42.33754" lon="0.12012">
        <ele>709.1</ele>
        <time>2015-09-22T11:29:58Z</time>
      </trkpt>
      <trkpt lat="42.33751" lon="0.12016">
        <ele>708.8</ele>
        <time>2015-09-22T11:30:00Z</time>
      </trkpt>
      <trkpt lat="42.33748" lon="0.1202">
        <ele>708.5</ele>
        <time>2015-09-22T11:30:25Z</time>
      </trkpt>
      <trkpt lat="42.33743" lon="0.12024">
        <ele>707.7</ele>
        <time>2015-09-22T11:30:27Z</time>
      </trkpt>
      <trkpt lat="42.3374" lon="0.12026">
        <ele>707.2</ele>
        <time>2015-09-22T11:30:28Z</time>
      </trkpt>
      <trkpt lat="42.33737" lon="0.12029">
        <ele>706.5</ele>
        <time>2015-09-22T11:30:29Z</time>
      </trkpt>
      <trkpt lat="42.33734" lon="0.12031">
        <ele>706</ele>
        <time>2015-09-22T11:30:30Z</time>
      </trkpt>
      <trkpt lat="42.33733" lon="0.12035">
        <ele>705.7</ele>
        <time>2015-09-22T11:30:31Z</time>
      </trkpt>
      <trkpt lat="42.33732" lon="0.12038">
        <ele>705.6</ele>
        <time>2015-09-22T11:30:32Z</time>
      </trkpt>
      <trkpt lat="42.33732" lon="0.12042">
        <ele>705.6</ele>
        <time>2015-09-22T11:30:33Z</time>
      </trkpt>
      <trkpt lat="42.33731" lon="0.12046">
        <ele>705.4</ele>
        <time>2015-09-22T11:30:34Z</time>
      </trkpt>
      <trkpt lat="42.33731" lon="0.12049">
        <ele>705.3</ele>
        <time>2015-09-22T11:30:35Z</time>
      </trkpt>
      <trkpt lat="42.33731" lon="0.12053">
        <ele>705.3</ele>
        <time>2015-09-22T11:30:36Z</time>
      </trkpt>
      <trkpt lat="42.33729" lon="0.12058">
        <ele>704.9</ele>
        <time>2015-09-22T11:30:38Z</time>
      </trkpt>
      <trkpt lat="42.33725" lon="0.12058">
        <ele>704</ele>
        <time>2015-09-22T11:30:40Z</time>
      </trkpt>
      <trkpt lat="42.33721" lon="0.12055">
        <ele>703.2</ele>
        <time>2015-09-22T11:30:42Z</time>
      </trkpt>
      <trkpt lat="42.33719" lon="0.12052">
        <ele>702.6</ele>
        <time>2015-09-22T11:30:44Z</time>
      </trkpt>
      <trkpt lat="42.33717" lon="0.12047">
        <ele>702.2</ele>
        <time>2015-09-22T11:30:46Z</time>
      </trkpt>
      <trkpt lat="42.33715" lon="0.12042">
        <ele>701.7</ele>
        <time>2015-09-22T11:30:48Z</time>
      </trkpt>
      <trkpt lat="42.33712" lon="0.12041">
        <ele>700.9</ele>
        <time>2015-09-22T11:30:50Z</time>
      </trkpt>
      <trkpt lat="42.33711" lon="0.12047">
        <ele>700.7</ele>
        <time>2015-09-22T11:30:52Z</time>
      </trkpt>
      <trkpt lat="42.33711" lon="0.12051">
        <ele>700.6</ele>
        <time>2015-09-22T11:30:53Z</time>
      </trkpt>
      <trkpt lat="42.3371" lon="0.12058">
        <ele>700.5</ele>
        <time>2015-09-22T11:30:54Z</time>
      </trkpt>
      <trkpt lat="42.33709" lon="0.12064">
        <ele>700.3</ele>
        <time>2015-09-22T11:30:55Z</time>
      </trkpt>
      <trkpt lat="42.33708" lon="0.1207">
        <ele>700.3</ele>
        <time>2015-09-22T11:30:56Z</time>
      </trkpt>
      <trkpt lat="42.33706" lon="0.12076">
        <ele>700.4</ele>
        <time>2015-09-22T11:30:57Z</time>
      </trkpt>
      <trkpt lat="42.33706" lon="0.12079">
        <ele>700.4</ele>
        <time>2015-09-22T11:30:58Z</time>
      </trkpt>
      <trkpt lat="42.33705" lon="0.12083">
        <ele>700.4</ele>
        <time>2015-09-22T11:30:59Z</time>
      </trkpt>
      <trkpt lat="42.33704" lon="0.12088">
        <ele>700.4</ele>
        <time>2015-09-22T11:31:01Z</time>
      </trkpt>
      <trkpt lat="42.33703" lon="0.12092">
        <ele>700.4</ele>
        <time>2015-09-22T11:31:05Z</time>
      </trkpt>
      <trkpt lat="42.33701" lon="0.12088">
        <ele>700.3</ele>
        <time>2015-09-22T11:31:16Z</time>
      </trkpt>
      <trkpt lat="42.33698" lon="0.12091">
        <ele>700.2</ele>
        <time>2015-09-22T11:31:19Z</time>
      </trkpt>
      <trkpt lat="42.33696" lon="0.12096">
        <ele>700.1</ele>
        <time>2015-09-22T11:31:21Z</time>
      </trkpt>
      <trkpt lat="42.33694" lon="0.121">
        <ele>699.9</ele>
        <time>2015-09-22T11:31:23Z</time>
      </trkpt>
      <trkpt lat="42.3369" lon="0.12102">
        <ele>699.7</ele>
        <time>2015-09-22T11:31:25Z</time>
      </trkpt>
      <trkpt lat="42.33688" lon="0.12099">
        <ele>699.6</ele>
        <time>2015-09-22T11:31:27Z</time>
      </trkpt>
      <trkpt lat="42.33686" lon="0.12096">
        <ele>699.6</ele>
        <time>2015-09-22T11:31:29Z</time>
      </trkpt>
      <trkpt lat="42.33684" lon="0.12091">
        <ele>699.6</ele>
        <time>2015-09-22T11:31:31Z</time>
      </trkpt>
      <trkpt lat="42.33682" lon="0.12087">
        <ele>699.6</ele>
        <time>2015-09-22T11:31:33Z</time>
      </trkpt>
      <trkpt lat="42.33678" lon="0.12086">
        <ele>699.5</ele>
        <time>2015-09-22T11:31:36Z</time>
      </trkpt>
      <trkpt lat="42.33675" lon="0.12088">
        <ele>699.4</ele>
        <time>2015-09-22T11:31:38Z</time>
      </trkpt>
      <trkpt lat="42.33671" lon="0.12094">
        <ele>699</ele>
        <time>2015-09-22T11:31:40Z</time>
      </trkpt>
      <trkpt lat="42.3367" lon="0.121">
        <ele>698.7</ele>
        <time>2015-09-22T11:31:41Z</time>
      </trkpt>
      <trkpt lat="42.33669" lon="0.12106">
        <ele>698.4</ele>
        <time>2015-09-22T11:31:42Z</time>
      </trkpt>
      <trkpt lat="42.33668" lon="0.12112">
        <ele>698.1</ele>
        <time>2015-09-22T11:31:43Z</time>
      </trkpt>
      <trkpt lat="42.33667" lon="0.12118">
        <ele>697.8</ele>
        <time>2015-09-22T11:31:44Z</time>
      </trkpt>
      <trkpt lat="42.33665" lon="0.12124">
        <ele>697.4</ele>
        <time>2015-09-22T11:31:45Z</time>
      </trkpt>
      <trkpt lat="42.33663" lon="0.12132">
        <ele>696.6</ele>
        <time>2015-09-22T11:31:46Z</time>
      </trkpt>
      <trkpt lat="42.33662" lon="0.12138">
        <ele>696.1</ele>
        <time>2015-09-22T11:31:47Z</time>
      </trkpt>
      <trkpt lat="42.33662" lon="0.12143">
        <ele>695.7</ele>
        <time>2015-09-22T11:31:48Z</time>
      </trkpt>
      <trkpt lat="42.33663" lon="0.12148">
        <ele>695.4</ele>
        <time>2015-09-22T11:31:49Z</time>
      </trkpt>
      <trkpt lat="42.33664" lon="0.12152">
        <ele>695.2</ele>
        <time>2015-09-22T11:31:50Z</time>
      </trkpt>
      <trkpt lat="42.33666" lon="0.12156">
        <ele>695</ele>
        <time>2015-09-22T11:31:51Z</time>
      </trkpt>
      <trkpt lat="42.33667" lon="0.1216">
        <ele>694.8</ele>
        <time>2015-09-22T11:31:52Z</time>
      </trkpt>
      <trkpt lat="42.33666" lon="0.12166">
        <ele>694.2</ele>
        <time>2015-09-22T11:31:54Z</time>
      </trkpt>
      <trkpt lat="42.33665" lon="0.1217">
        <ele>693.8</ele>
        <time>2015-09-22T11:31:55Z</time>
      </trkpt>
      <trkpt lat="42.33662" lon="0.12174">
        <ele>693.3</ele>
        <time>2015-09-22T11:31:56Z</time>
      </trkpt>
      <trkpt lat="42.3366" lon="0.12178">
        <ele>692.7</ele>
        <time>2015-09-22T11:31:57Z</time>
      </trkpt>
      <trkpt lat="42.33656" lon="0.12182">
        <ele>692.1</ele>
        <time>2015-09-22T11:31:58Z</time>
      </trkpt>
      <trkpt lat="42.33651" lon="0.12186">
        <ele>691.2</ele>
        <time>2015-09-22T11:31:59Z</time>
      </trkpt>
      <trkpt lat="42.33646" lon="0.1219">
        <ele>690.5</ele>
        <time>2015-09-22T11:32:00Z</time>
      </trkpt>
      <trkpt lat="42.3364" lon="0.12193">
        <ele>689.7</ele>
        <time>2015-09-22T11:32:01Z</time>
      </trkpt>
      <trkpt lat="42.33635" lon="0.12195">
        <ele>689</ele>
        <time>2015-09-22T11:32:02Z</time>
      </trkpt>
      <trkpt lat="42.3363" lon="0.12196">
        <ele>688.5</ele>
        <time>2015-09-22T11:32:03Z</time>
      </trkpt>
      <trkpt lat="42.33625" lon="0.12199">
        <ele>687.8</ele>
        <time>2015-09-22T11:32:04Z</time>
      </trkpt>
      <trkpt lat="42.33619" lon="0.12204">
        <ele>687.2</ele>
        <time>2015-09-22T11:32:05Z</time>
      </trkpt>
      <trkpt lat="42.33615" lon="0.12209">
        <ele>686.7</ele>
        <time>2015-09-22T11:32:06Z</time>
      </trkpt>
      <trkpt lat="42.33611" lon="0.12212">
        <ele>686.7</ele>
        <time>2015-09-22T11:32:07Z</time>
      </trkpt>
      <trkpt lat="42.33606" lon="0.12216">
        <ele>686.8</ele>
        <time>2015-09-22T11:32:08Z</time>
      </trkpt>
      <trkpt lat="42.33601" lon="0.12221">
        <ele>686.9</ele>
        <time>2015-09-22T11:32:09Z</time>
      </trkpt>
      <trkpt lat="42.33596" lon="0.12224">
        <ele>687.1</ele>
        <time>2015-09-22T11:32:10Z</time>
      </trkpt>
      <trkpt lat="42.33591" lon="0.12225">
        <ele>687.2</ele>
        <time>2015-09-22T11:32:11Z</time>
      </trkpt>
      <trkpt lat="42.33586" lon="0.12225">
        <ele>687.1</ele>
        <time>2015-09-22T11:32:12Z</time>
      </trkpt>
      <trkpt lat="42.3358" lon="0.12225">
        <ele>687</ele>
        <time>2015-09-22T11:32:13Z</time>
      </trkpt>
      <trkpt lat="42.33574" lon="0.12225">
        <ele>687</ele>
        <time>2015-09-22T11:32:14Z</time>
      </trkpt>
      <trkpt lat="42.3357" lon="0.12224">
        <ele>686.8</ele>
        <time>2015-09-22T11:32:15Z</time>
      </trkpt>
      <trkpt lat="42.33565" lon="0.12222">
        <ele>686.6</ele>
        <time>2015-09-22T11:32:16Z</time>
      </trkpt>
      <trkpt lat="42.33561" lon="0.12222">
        <ele>686.5</ele>
        <time>2015-09-22T11:32:17Z</time>
      </trkpt>
      <trkpt lat="42.33557" lon="0.12221">
        <ele>686.3</ele>
        <time>2015-09-22T11:32:18Z</time>
      </trkpt>
      <trkpt lat="42.33553" lon="0.12219">
        <ele>686</ele>
        <time>2015-09-22T11:32:19Z</time>
      </trkpt>
      <trkpt lat="42.33549" lon="0.12219">
        <ele>685.9</ele>
        <time>2015-09-22T11:32:20Z</time>
      </trkpt>
      <trkpt lat="42.33545" lon="0.12219">
        <ele>685.9</ele>
        <time>2015-09-22T11:32:21Z</time>
      </trkpt>
      <trkpt lat="42.33541" lon="0.1222">
        <ele>685.8</ele>
        <time>2015-09-22T11:32:22Z</time>
      </trkpt>
      <trkpt lat="42.33537" lon="0.12218">
        <ele>685.1</ele>
        <time>2015-09-22T11:32:23Z</time>
      </trkpt>
      <trkpt lat="42.33533" lon="0.12216">
        <ele>684.5</ele>
        <time>2015-09-22T11:32:24Z</time>
      </trkpt>
      <trkpt lat="42.3353" lon="0.12213">
        <ele>683.6</ele>
        <time>2015-09-22T11:32:25Z</time>
      </trkpt>
      <trkpt lat="42.33527" lon="0.12212">
        <ele>683</ele>
        <time>2015-09-22T11:32:26Z</time>
      </trkpt>
      <trkpt lat="42.33523" lon="0.12211">
        <ele>682.5</ele>
        <time>2015-09-22T11:32:27Z</time>
      </trkpt>
      <trkpt lat="42.3352" lon="0.1221">
        <ele>682</ele>
        <time>2015-09-22T11:32:28Z</time>
      </trkpt>
      <trkpt lat="42.33517" lon="0.12209">
        <ele>681.4</ele>
        <time>2015-09-22T11:32:29Z</time>
      </trkpt>
      <trkpt lat="42.33514" lon="0.12208">
        <ele>681</ele>
        <time>2015-09-22T11:32:30Z</time>
      </trkpt>
      <trkpt lat="42.33509" lon="0.12207">
        <ele>680.6</ele>
        <time>2015-09-22T11:32:32Z</time>
      </trkpt>
      <trkpt lat="42.33504" lon="0.12207">
        <ele>680</ele>
        <time>2015-09-22T11:32:34Z</time>
      </trkpt>
      <trkpt lat="42.33501" lon="0.12208">
        <ele>679.7</ele>
        <time>2015-09-22T11:32:35Z</time>
      </trkpt>
      <trkpt lat="42.33499" lon="0.12209">
        <ele>679.4</ele>
        <time>2015-09-22T11:32:36Z</time>
      </trkpt>
      <trkpt lat="42.33496" lon="0.12209">
        <ele>679.2</ele>
        <time>2015-09-22T11:32:37Z</time>
      </trkpt>
      <trkpt lat="42.33492" lon="0.1221">
        <ele>679.1</ele>
        <time>2015-09-22T11:32:38Z</time>
      </trkpt>
      <trkpt lat="42.33489" lon="0.12211">
        <ele>678.9</ele>
        <time>2015-09-22T11:32:39Z</time>
      </trkpt>
      <trkpt lat="42.33485" lon="0.12212">
        <ele>678.7</ele>
        <time>2015-09-22T11:32:40Z</time>
      </trkpt>
      <trkpt lat="42.33481" lon="0.12213">
        <ele>678.5</ele>
        <time>2015-09-22T11:32:41Z</time>
      </trkpt>
      <trkpt lat="42.33477" lon="0.12215">
        <ele>678.5</ele>
        <time>2015-09-22T11:32:42Z</time>
      </trkpt>
      <trkpt lat="42.33473" lon="0.12217">
        <ele>678.7</ele>
        <time>2015-09-22T11:32:43Z</time>
      </trkpt>
      <trkpt lat="42.33469" lon="0.1222">
        <ele>679</ele>
        <time>2015-09-22T11:32:44Z</time>
      </trkpt>
      <trkpt lat="42.33465" lon="0.12223">
        <ele>679.4</ele>
        <time>2015-09-22T11:32:45Z</time>
      </trkpt>
      <trkpt lat="42.33462" lon="0.12226">
        <ele>679.8</ele>
        <time>2015-09-22T11:32:46Z</time>
      </trkpt>
      <trkpt lat="42.33458" lon="0.12229">
        <ele>680.2</ele>
        <time>2015-09-22T11:32:47Z</time>
      </trkpt>
      <trkpt lat="42.33454" lon="0.12231">
        <ele>680.5</ele>
        <time>2015-09-22T11:32:48Z</time>
      </trkpt>
      <trkpt lat="42.3345" lon="0.12232">
        <ele>680.7</ele>
        <time>2015-09-22T11:32:49Z</time>
      </trkpt>
      <trkpt lat="42.33446" lon="0.12232">
        <ele>680.6</ele>
        <time>2015-09-22T11:32:50Z</time>
      </trkpt>
      <trkpt lat="42.33442" lon="0.12231">
        <ele>680.2</ele>
        <time>2015-09-22T11:32:51Z</time>
      </trkpt>
      <trkpt lat="42.33438" lon="0.12229">
        <ele>679.7</ele>
        <time>2015-09-22T11:32:52Z</time>
      </trkpt>
      <trkpt lat="42.33434" lon="0.12228">
        <ele>679.3</ele>
        <time>2015-09-22T11:32:53Z</time>
      </trkpt>
      <trkpt lat="42.3343" lon="0.12226">
        <ele>678.9</ele>
        <time>2015-09-22T11:32:54Z</time>
      </trkpt>
      <trkpt lat="42.33427" lon="0.12226">
        <ele>678.6</ele>
        <time>2015-09-22T11:32:55Z</time>
      </trkpt>
      <trkpt lat="42.33423" lon="0.12226">
        <ele>678.6</ele>
        <time>2015-09-22T11:32:56Z</time>
      </trkpt>
      <trkpt lat="42.33419" lon="0.12228">
        <ele>678.9</ele>
        <time>2015-09-22T11:32:57Z</time>
      </trkpt>
      <trkpt lat="42.33416" lon="0.1223">
        <ele>679.4</ele>
        <time>2015-09-22T11:32:58Z</time>
      </trkpt>
      <trkpt lat="42.33412" lon="0.12232">
        <ele>679.7</ele>
        <time>2015-09-22T11:32:59Z</time>
      </trkpt>
      <trkpt lat="42.33407" lon="0.1223">
        <ele>679.2</ele>
        <time>2015-09-22T11:33:00Z</time>
      </trkpt>
      <trkpt lat="42.33403" lon="0.12229">
        <ele>679</ele>
        <time>2015-09-22T11:33:01Z</time>
      </trkpt>
      <trkpt lat="42.334" lon="0.12228">
        <ele>678.5</ele>
        <time>2015-09-22T11:33:02Z</time>
      </trkpt>
      <trkpt lat="42.33397" lon="0.12226">
        <ele>678.1</ele>
        <time>2015-09-22T11:33:03Z</time>
      </trkpt>
      <trkpt lat="42.33394" lon="0.12224">
        <ele>677.4</ele>
        <time>2015-09-22T11:33:05Z</time>
      </trkpt>
      <trkpt lat="42.33391" lon="0.12221">
        <ele>676.5</ele>
        <time>2015-09-22T11:33:07Z</time>
      </trkpt>
      <trkpt lat="42.33386" lon="0.12219">
        <ele>675.9</ele>
        <time>2015-09-22T11:33:09Z</time>
      </trkpt>
      <trkpt lat="42.33383" lon="0.12219">
        <ele>675.8</ele>
        <time>2015-09-22T11:33:10Z</time>
      </trkpt>
      <trkpt lat="42.3338" lon="0.12218">
        <ele>675.5</ele>
        <time>2015-09-22T11:33:11Z</time>
      </trkpt>
      <trkpt lat="42.33377" lon="0.12217">
        <ele>675.3</ele>
        <time>2015-09-22T11:33:12Z</time>
      </trkpt>
      <trkpt lat="42.33374" lon="0.12217">
        <ele>675</ele>
        <time>2015-09-22T11:33:13Z</time>
      </trkpt>
      <trkpt lat="42.33371" lon="0.12216">
        <ele>674.5</ele>
        <time>2015-09-22T11:33:14Z</time>
      </trkpt>
      <trkpt lat="42.33368" lon="0.12215">
        <ele>674</ele>
        <time>2015-09-22T11:33:15Z</time>
      </trkpt>
      <trkpt lat="42.33365" lon="0.12214">
        <ele>673.6</ele>
        <time>2015-09-22T11:33:16Z</time>
      </trkpt>
      <trkpt lat="42.33362" lon="0.12214">
        <ele>673.4</ele>
        <time>2015-09-22T11:33:17Z</time>
      </trkpt>
      <trkpt lat="42.33359" lon="0.12215">
        <ele>673.4</ele>
        <time>2015-09-22T11:33:18Z</time>
      </trkpt>
      <trkpt lat="42.33357" lon="0.12217">
        <ele>673.5</ele>
        <time>2015-09-22T11:33:19Z</time>
      </trkpt>
      <trkpt lat="42.33354" lon="0.12218">
        <ele>673.6</ele>
        <time>2015-09-22T11:33:20Z</time>
      </trkpt>
      <trkpt lat="42.3335" lon="0.1222">
        <ele>673.6</ele>
        <time>2015-09-22T11:33:21Z</time>
      </trkpt>
      <trkpt lat="42.33347" lon="0.12222">
        <ele>673.8</ele>
        <time>2015-09-22T11:33:22Z</time>
      </trkpt>
      <trkpt lat="42.33343" lon="0.12224">
        <ele>673.9</ele>
        <time>2015-09-22T11:33:23Z</time>
      </trkpt>
      <trkpt lat="42.3334" lon="0.12226">
        <ele>673.8</ele>
        <time>2015-09-22T11:33:24Z</time>
      </trkpt>
      <trkpt lat="42.33336" lon="0.12227">
        <ele>673.6</ele>
        <time>2015-09-22T11:33:25Z</time>
      </trkpt>
      <trkpt lat="42.33332" lon="0.12228">
        <ele>673.4</ele>
        <time>2015-09-22T11:33:26Z</time>
      </trkpt>
      <trkpt lat="42.33327" lon="0.12229">
        <ele>673</ele>
        <time>2015-09-22T11:33:27Z</time>
      </trkpt>
      <trkpt lat="42.33322" lon="0.1223">
        <ele>672.7</ele>
        <time>2015-09-22T11:33:28Z</time>
      </trkpt>
      <trkpt lat="42.33318" lon="0.12231">
        <ele>672.4</ele>
        <time>2015-09-22T11:33:29Z</time>
      </trkpt>
      <trkpt lat="42.33313" lon="0.12232">
        <ele>672</ele>
        <time>2015-09-22T11:33:30Z</time>
      </trkpt>
      <trkpt lat="42.33309" lon="0.12233">
        <ele>671.7</ele>
        <time>2015-09-22T11:33:31Z</time>
      </trkpt>
      <trkpt lat="42.33305" lon="0.12234">
        <ele>671.3</ele>
        <time>2015-09-22T11:33:32Z</time>
      </trkpt>
      <trkpt lat="42.33301" lon="0.12235">
        <ele>671</ele>
        <time>2015-09-22T11:33:33Z</time>
      </trkpt>
      <trkpt lat="42.33297" lon="0.12236">
        <ele>670.7</ele>
        <time>2015-09-22T11:33:34Z</time>
      </trkpt>
      <trkpt lat="42.33294" lon="0.12237">
        <ele>670.5</ele>
        <time>2015-09-22T11:33:35Z</time>
      </trkpt>
      <trkpt lat="42.33292" lon="0.1224">
        <ele>670.4</ele>
        <time>2015-09-22T11:33:36Z</time>
      </trkpt>
      <trkpt lat="42.33289" lon="0.12243">
        <ele>670.7</ele>
        <time>2015-09-22T11:33:37Z</time>
      </trkpt>
      <trkpt lat="42.33287" lon="0.12246">
        <ele>671</ele>
        <time>2015-09-22T11:33:38Z</time>
      </trkpt>
      <trkpt lat="42.33286" lon="0.12251">
        <ele>671.3</ele>
        <time>2015-09-22T11:33:39Z</time>
      </trkpt>
      <trkpt lat="42.33285" lon="0.12256">
        <ele>671.7</ele>
        <time>2015-09-22T11:33:40Z</time>
      </trkpt>
      <trkpt lat="42.33284" lon="0.12261">
        <ele>672.1</ele>
        <time>2015-09-22T11:33:41Z</time>
      </trkpt>
      <trkpt lat="42.33282" lon="0.12267">
        <ele>672.5</ele>
        <time>2015-09-22T11:33:42Z</time>
      </trkpt>
      <trkpt lat="42.33281" lon="0.12278">
        <ele>673.2</ele>
        <time>2015-09-22T11:33:43Z</time>
      </trkpt>
      <trkpt lat="42.3328" lon="0.12284">
        <ele>673.4</ele>
        <time>2015-09-22T11:33:44Z</time>
      </trkpt>
      <trkpt lat="42.33277" lon="0.1229">
        <ele>673.4</ele>
        <time>2015-09-22T11:33:45Z</time>
      </trkpt>
      <trkpt lat="42.33275" lon="0.12295">
        <ele>673.4</ele>
        <time>2015-09-22T11:33:46Z</time>
      </trkpt>
      <trkpt lat="42.33272" lon="0.123">
        <ele>673.3</ele>
        <time>2015-09-22T11:33:47Z</time>
      </trkpt>
      <trkpt lat="42.33269" lon="0.12306">
        <ele>673.3</ele>
        <time>2015-09-22T11:33:48Z</time>
      </trkpt>
      <trkpt lat="42.33266" lon="0.12313">
        <ele>673.3</ele>
        <time>2015-09-22T11:33:49Z</time>
      </trkpt>
      <trkpt lat="42.33264" lon="0.12319">
        <ele>673.4</ele>
        <time>2015-09-22T11:33:50Z</time>
      </trkpt>
      <trkpt lat="42.33262" lon="0.12325">
        <ele>673.5</ele>
        <time>2015-09-22T11:33:51Z</time>
      </trkpt>
      <trkpt lat="42.3326" lon="0.12331">
        <ele>673.5</ele>
        <time>2015-09-22T11:33:52Z</time>
      </trkpt>
      <trkpt lat="42.33258" lon="0.12335">
        <ele>673.3</ele>
        <time>2015-09-22T11:33:53Z</time>
      </trkpt>
      <trkpt lat="42.33256" lon="0.12339">
        <ele>673.1</ele>
        <time>2015-09-22T11:33:54Z</time>
      </trkpt>
      <trkpt lat="42.33253" lon="0.12341">
        <ele>672.7</ele>
        <time>2015-09-22T11:33:55Z</time>
      </trkpt>
      <trkpt lat="42.3325" lon="0.12347">
        <ele>672.3</ele>
        <time>2015-09-22T11:33:57Z</time>
      </trkpt>
      <trkpt lat="42.33247" lon="0.12352">
        <ele>672</ele>
        <time>2015-09-22T11:33:59Z</time>
      </trkpt>
      <trkpt lat="42.33243" lon="0.12354">
        <ele>671</ele>
        <time>2015-09-22T11:34:01Z</time>
      </trkpt>
      <trkpt lat="42.33238" lon="0.12355">
        <ele>669.8</ele>
        <time>2015-09-22T11:34:03Z</time>
      </trkpt>
      <trkpt lat="42.33233" lon="0.12352">
        <ele>668.6</ele>
        <time>2015-09-22T11:34:05Z</time>
      </trkpt>
      <trkpt lat="42.33229" lon="0.12348">
        <ele>667.4</ele>
        <time>2015-09-22T11:34:07Z</time>
      </trkpt>
      <trkpt lat="42.33226" lon="0.12347">
        <ele>666.8</ele>
        <time>2015-09-22T11:34:08Z</time>
      </trkpt>
      <trkpt lat="42.33223" lon="0.12348">
        <ele>666.1</ele>
        <time>2015-09-22T11:34:09Z</time>
      </trkpt>
      <trkpt lat="42.3322" lon="0.12349">
        <ele>665.4</ele>
        <time>2015-09-22T11:34:10Z</time>
      </trkpt>
      <trkpt lat="42.33217" lon="0.12349">
        <ele>664.7</ele>
        <time>2015-09-22T11:34:11Z</time>
      </trkpt>
      <trkpt lat="42.33214" lon="0.12348">
        <ele>664</ele>
        <time>2015-09-22T11:34:12Z</time>
      </trkpt>
      <trkpt lat="42.33211" lon="0.12346">
        <ele>663.3</ele>
        <time>2015-09-22T11:34:13Z</time>
      </trkpt>
      <trkpt lat="42.33208" lon="0.12346">
        <ele>662.6</ele>
        <time>2015-09-22T11:34:14Z</time>
      </trkpt>
      <trkpt lat="42.33204" lon="0.12347">
        <ele>662.6</ele>
        <time>2015-09-22T11:34:15Z</time>
      </trkpt>
      <trkpt lat="42.33201" lon="0.12349">
        <ele>662.5</ele>
        <time>2015-09-22T11:34:16Z</time>
      </trkpt>
      <trkpt lat="42.33199" lon="0.12351">
        <ele>662.4</ele>
        <time>2015-09-22T11:34:17Z</time>
      </trkpt>
      <trkpt lat="42.33195" lon="0.12351">
        <ele>662.3</ele>
        <time>2015-09-22T11:34:18Z</time>
      </trkpt>
      <trkpt lat="42.33191" lon="0.12351">
        <ele>662.2</ele>
        <time>2015-09-22T11:34:19Z</time>
      </trkpt>
      <trkpt lat="42.33184" lon="0.1235">
        <ele>662</ele>
        <time>2015-09-22T11:34:20Z</time>
      </trkpt>
      <trkpt lat="42.3318" lon="0.12351">
        <ele>661.8</ele>
        <time>2015-09-22T11:34:21Z</time>
      </trkpt>
      <trkpt lat="42.33177" lon="0.12354">
        <ele>661.6</ele>
        <time>2015-09-22T11:34:22Z</time>
      </trkpt>
      <trkpt lat="42.33173" lon="0.12358">
        <ele>661.3</ele>
        <time>2015-09-22T11:34:23Z</time>
      </trkpt>
      <trkpt lat="42.33169" lon="0.12361">
        <ele>660.9</ele>
        <time>2015-09-22T11:34:24Z</time>
      </trkpt>
      <trkpt lat="42.33165" lon="0.12366">
        <ele>660.4</ele>
        <time>2015-09-22T11:34:25Z</time>
      </trkpt>
      <trkpt lat="42.33161" lon="0.12371">
        <ele>659.9</ele>
        <time>2015-09-22T11:34:26Z</time>
      </trkpt>
      <trkpt lat="42.33157" lon="0.12376">
        <ele>659.3</ele>
        <time>2015-09-22T11:34:27Z</time>
      </trkpt>
      <trkpt lat="42.33153" lon="0.1238">
        <ele>659.1</ele>
        <time>2015-09-22T11:34:28Z</time>
      </trkpt>
      <trkpt lat="42.33149" lon="0.12385">
        <ele>658.9</ele>
        <time>2015-09-22T11:34:29Z</time>
      </trkpt>
      <trkpt lat="42.33145" lon="0.1239">
        <ele>658.5</ele>
        <time>2015-09-22T11:34:30Z</time>
      </trkpt>
      <trkpt lat="42.33141" lon="0.12394">
        <ele>658.1</ele>
        <time>2015-09-22T11:34:31Z</time>
      </trkpt>
      <trkpt lat="42.33137" lon="0.12398">
        <ele>657.7</ele>
        <time>2015-09-22T11:34:32Z</time>
      </trkpt>
      <trkpt lat="42.33133" lon="0.12402">
        <ele>657.2</ele>
        <time>2015-09-22T11:34:33Z</time>
      </trkpt>
      <trkpt lat="42.33129" lon="0.12407">
        <ele>656.7</ele>
        <time>2015-09-22T11:34:34Z</time>
      </trkpt>
      <trkpt lat="42.33125" lon="0.12412">
        <ele>656.1</ele>
        <time>2015-09-22T11:34:35Z</time>
      </trkpt>
      <trkpt lat="42.3312" lon="0.12417">
        <ele>656.1</ele>
        <time>2015-09-22T11:34:36Z</time>
      </trkpt>
      <trkpt lat="42.33118" lon="0.12425">
        <ele>655.9</ele>
        <time>2015-09-22T11:34:37Z</time>
      </trkpt>
      <trkpt lat="42.33113" lon="0.12431">
        <ele>655.6</ele>
        <time>2015-09-22T11:34:38Z</time>
      </trkpt>
      <trkpt lat="42.33109" lon="0.12438">
        <ele>655.3</ele>
        <time>2015-09-22T11:34:39Z</time>
      </trkpt>
      <trkpt lat="42.33106" lon="0.12444">
        <ele>654.9</ele>
        <time>2015-09-22T11:34:40Z</time>
      </trkpt>
      <trkpt lat="42.33103" lon="0.12449">
        <ele>654.5</ele>
        <time>2015-09-22T11:34:41Z</time>
      </trkpt>
      <trkpt lat="42.33099" lon="0.12455">
        <ele>654</ele>
        <time>2015-09-22T11:34:42Z</time>
      </trkpt>
      <trkpt lat="42.33095" lon="0.1246">
        <ele>653.6</ele>
        <time>2015-09-22T11:34:43Z</time>
      </trkpt>
      <trkpt lat="42.33091" lon="0.12465">
        <ele>653.6</ele>
        <time>2015-09-22T11:34:44Z</time>
      </trkpt>
      <trkpt lat="42.33086" lon="0.1247">
        <ele>653.5</ele>
        <time>2015-09-22T11:34:45Z</time>
      </trkpt>
      <trkpt lat="42.33081" lon="0.12473">
        <ele>653.5</ele>
        <time>2015-09-22T11:34:46Z</time>
      </trkpt>
      <trkpt lat="42.33076" lon="0.12476">
        <ele>653.3</ele>
        <time>2015-09-22T11:34:47Z</time>
      </trkpt>
      <trkpt lat="42.33071" lon="0.12478">
        <ele>653.2</ele>
        <time>2015-09-22T11:34:48Z</time>
      </trkpt>
      <trkpt lat="42.33065" lon="0.12479">
        <ele>653.1</ele>
        <time>2015-09-22T11:34:49Z</time>
      </trkpt>
      <trkpt lat="42.3306" lon="0.1248">
        <ele>653</ele>
        <time>2015-09-22T11:34:50Z</time>
      </trkpt>
      <trkpt lat="42.33055" lon="0.12482">
        <ele>652.9</ele>
        <time>2015-09-22T11:34:51Z</time>
      </trkpt>
      <trkpt lat="42.33052" lon="0.12486">
        <ele>652.9</ele>
        <time>2015-09-22T11:34:53Z</time>
      </trkpt>
      <trkpt lat="42.33051" lon="0.1249">
        <ele>653.2</ele>
        <time>2015-09-22T11:34:55Z</time>
      </trkpt>
      <trkpt lat="42.33051" lon="0.12496">
        <ele>653.5</ele>
        <time>2015-09-22T11:35:54Z</time>
      </trkpt>
      <trkpt lat="42.3305" lon="0.12501">
        <ele>653.7</ele>
        <time>2015-09-22T11:35:56Z</time>
      </trkpt>
      <trkpt lat="42.3305" lon="0.12505">
        <ele>654</ele>
        <time>2015-09-22T11:35:58Z</time>
      </trkpt>
      <trkpt lat="42.33051" lon="0.12509">
        <ele>654.2</ele>
        <time>2015-09-22T11:36:00Z</time>
      </trkpt>
      <trkpt lat="42.33051" lon="0.12514">
        <ele>654.5</ele>
        <time>2015-09-22T11:36:02Z</time>
      </trkpt>
      <trkpt lat="42.33052" lon="0.12519">
        <ele>654.7</ele>
        <time>2015-09-22T11:36:03Z</time>
      </trkpt>
      <trkpt lat="42.33052" lon="0.12524">
        <ele>655</ele>
        <time>2015-09-22T11:36:04Z</time>
      </trkpt>
      <trkpt lat="42.33053" lon="0.1253">
        <ele>655.4</ele>
        <time>2015-09-22T11:36:05Z</time>
      </trkpt>
      <trkpt lat="42.33052" lon="0.12536">
        <ele>655.7</ele>
        <time>2015-09-22T11:36:06Z</time>
      </trkpt>
      <trkpt lat="42.33051" lon="0.12542">
        <ele>656</ele>
        <time>2015-09-22T11:36:07Z</time>
      </trkpt>
      <trkpt lat="42.33049" lon="0.12547">
        <ele>655.5</ele>
        <time>2015-09-22T11:36:08Z</time>
      </trkpt>
      <trkpt lat="42.33047" lon="0.12553">
        <ele>654.9</ele>
        <time>2015-09-22T11:36:09Z</time>
      </trkpt>
      <trkpt lat="42.33045" lon="0.12558">
        <ele>654.4</ele>
        <time>2015-09-22T11:36:10Z</time>
      </trkpt>
      <trkpt lat="42.33043" lon="0.12563">
        <ele>654</ele>
        <time>2015-09-22T11:36:11Z</time>
      </trkpt>
      <trkpt lat="42.33041" lon="0.12568">
        <ele>653.5</ele>
        <time>2015-09-22T11:36:12Z</time>
      </trkpt>
      <trkpt lat="42.33037" lon="0.12571">
        <ele>653.3</ele>
        <time>2015-09-22T11:36:13Z</time>
      </trkpt>
      <trkpt lat="42.33034" lon="0.12574">
        <ele>653</ele>
        <time>2015-09-22T11:36:14Z</time>
      </trkpt>
      <trkpt lat="42.3303" lon="0.12578">
        <ele>652.8</ele>
        <time>2015-09-22T11:36:15Z</time>
      </trkpt>
      <trkpt lat="42.33024" lon="0.1258">
        <ele>652.8</ele>
        <time>2015-09-22T11:36:16Z</time>
      </trkpt>
      <trkpt lat="42.33022" lon="0.12584">
        <ele>652.5</ele>
        <time>2015-09-22T11:36:17Z</time>
      </trkpt>
      <trkpt lat="42.33021" lon="0.12588">
        <ele>652.3</ele>
        <time>2015-09-22T11:36:18Z</time>
      </trkpt>
      <trkpt lat="42.33021" lon="0.12593">
        <ele>651.9</ele>
        <time>2015-09-22T11:36:19Z</time>
      </trkpt>
      <trkpt lat="42.33019" lon="0.12598">
        <ele>651.6</ele>
        <time>2015-09-22T11:36:20Z</time>
      </trkpt>
      <trkpt lat="42.33018" lon="0.12603">
        <ele>651.2</ele>
        <time>2015-09-22T11:36:21Z</time>
      </trkpt>
      <trkpt lat="42.33016" lon="0.12608">
        <ele>651</ele>
        <time>2015-09-22T11:36:22Z</time>
      </trkpt>
      <trkpt lat="42.33014" lon="0.12612">
        <ele>650.9</ele>
        <time>2015-09-22T11:36:23Z</time>
      </trkpt>
      <trkpt lat="42.3301" lon="0.12616">
        <ele>650.8</ele>
        <time>2015-09-22T11:36:24Z</time>
      </trkpt>
      <trkpt lat="42.33007" lon="0.12621">
        <ele>650.8</ele>
        <time>2015-09-22T11:36:25Z</time>
      </trkpt>
      <trkpt lat="42.33004" lon="0.12625">
        <ele>650.7</ele>
        <time>2015-09-22T11:36:26Z</time>
      </trkpt>
      <trkpt lat="42.33" lon="0.12625">
        <ele>650.9</ele>
        <time>2015-09-22T11:36:27Z</time>
      </trkpt>
      <trkpt lat="42.32997" lon="0.12626">
        <ele>651</ele>
        <time>2015-09-22T11:36:28Z</time>
      </trkpt>
      <trkpt lat="42.32993" lon="0.12624">
        <ele>651.6</ele>
        <time>2015-09-22T11:36:30Z</time>
      </trkpt>
      <trkpt lat="42.32988" lon="0.12624">
        <ele>651.9</ele>
        <time>2015-09-22T11:36:32Z</time>
      </trkpt>
      <trkpt lat="42.32984" lon="0.12625">
        <ele>652.2</ele>
        <time>2015-09-22T11:36:34Z</time>
      </trkpt>
      <trkpt lat="42.3298" lon="0.12628">
        <ele>651.8</ele>
        <time>2015-09-22T11:36:36Z</time>
      </trkpt>
      <trkpt lat="42.32978" lon="0.12634">
        <ele>650.9</ele>
        <time>2015-09-22T11:36:38Z</time>
      </trkpt>
      <trkpt lat="42.32978" lon="0.1264">
        <ele>649.7</ele>
        <time>2015-09-22T11:36:40Z</time>
      </trkpt>
      <trkpt lat="42.32979" lon="0.12646">
        <ele>648.5</ele>
        <time>2015-09-22T11:36:42Z</time>
      </trkpt>
      <trkpt lat="42.32979" lon="0.12653">
        <ele>647.3</ele>
        <time>2015-09-22T11:36:44Z</time>
      </trkpt>
      <trkpt lat="42.32979" lon="0.12656">
        <ele>646.6</ele>
        <time>2015-09-22T11:36:45Z</time>
      </trkpt>
      <trkpt lat="42.3298" lon="0.12662">
        <ele>645.5</ele>
        <time>2015-09-22T11:36:46Z</time>
      </trkpt>
      <trkpt lat="42.3298" lon="0.12668">
        <ele>644.4</ele>
        <time>2015-09-22T11:36:47Z</time>
      </trkpt>
      <trkpt lat="42.32979" lon="0.12674">
        <ele>643.3</ele>
        <time>2015-09-22T11:36:48Z</time>
      </trkpt>
      <trkpt lat="42.32978" lon="0.1268">
        <ele>642.2</ele>
        <time>2015-09-22T11:36:49Z</time>
      </trkpt>
      <trkpt lat="42.32978" lon="0.12685">
        <ele>641.2</ele>
        <time>2015-09-22T11:36:50Z</time>
      </trkpt>
      <trkpt lat="42.32979" lon="0.1269">
        <ele>640.2</ele>
        <time>2015-09-22T11:36:51Z</time>
      </trkpt>
      <trkpt lat="42.32981" lon="0.12697">
        <ele>638.9</ele>
        <time>2015-09-22T11:36:53Z</time>
      </trkpt>
      <trkpt lat="42.3298" lon="0.12704">
        <ele>637.7</ele>
        <time>2015-09-22T11:36:55Z</time>
      </trkpt>
      <trkpt lat="42.32978" lon="0.12708">
        <ele>636.8</ele>
        <time>2015-09-22T11:36:57Z</time>
      </trkpt>
      <trkpt lat="42.32978" lon="0.12713">
        <ele>636.6</ele>
        <time>2015-09-22T11:36:59Z</time>
      </trkpt>
      <trkpt lat="42.32976" lon="0.12716">
        <ele>636.6</ele>
        <time>2015-09-22T11:37:01Z</time>
      </trkpt>
      <trkpt lat="42.32972" lon="0.12716">
        <ele>636.6</ele>
        <time>2015-09-22T11:37:03Z</time>
      </trkpt>
      <trkpt lat="42.32969" lon="0.12715">
        <ele>636.6</ele>
        <time>2015-09-22T11:37:05Z</time>
      </trkpt>
      <trkpt lat="42.32965" lon="0.12714">
        <ele>636.7</ele>
        <time>2015-09-22T11:37:07Z</time>
      </trkpt>
      <trkpt lat="42.32962" lon="0.12714">
        <ele>636.7</ele>
        <time>2015-09-22T11:37:09Z</time>
      </trkpt>
      <trkpt lat="42.32959" lon="0.12714">
        <ele>636.7</ele>
        <time>2015-09-22T11:37:13Z</time>
      </trkpt>
      <trkpt lat="42.32956" lon="0.12712">
        <ele>637.1</ele>
        <time>2015-09-22T11:37:28Z</time>
      </trkpt>
      <trkpt lat="42.32954" lon="0.1271">
        <ele>637.4</ele>
        <time>2015-09-22T11:37:34Z</time>
      </trkpt>
      <trkpt lat="42.32951" lon="0.12714">
        <ele>637.5</ele>
        <time>2015-09-22T11:37:38Z</time>
      </trkpt>
      <trkpt lat="42.32947" lon="0.12717">
        <ele>637.7</ele>
        <time>2015-09-22T11:37:41Z</time>
      </trkpt>
      <trkpt lat="42.32944" lon="0.1272">
        <ele>637.9</ele>
        <time>2015-09-22T11:37:43Z</time>
      </trkpt>
      <trkpt lat="42.32939" lon="0.12722">
        <ele>638</ele>
        <time>2015-09-22T11:37:45Z</time>
      </trkpt>
      <trkpt lat="42.32937" lon="0.12724">
        <ele>638.2</ele>
        <time>2015-09-22T11:37:46Z</time>
      </trkpt>
      <trkpt lat="42.32934" lon="0.12725">
        <ele>638.3</ele>
        <time>2015-09-22T11:37:47Z</time>
      </trkpt>
      <trkpt lat="42.32929" lon="0.12727">
        <ele>638.6</ele>
        <time>2015-09-22T11:37:49Z</time>
      </trkpt>
      <trkpt lat="42.32924" lon="0.12732">
        <ele>638.5</ele>
        <time>2015-09-22T11:37:51Z</time>
      </trkpt>
      <trkpt lat="42.32922" lon="0.12736">
        <ele>638.3</ele>
        <time>2015-09-22T11:37:52Z</time>
      </trkpt>
      <trkpt lat="42.3292" lon="0.12741">
        <ele>638</ele>
        <time>2015-09-22T11:37:53Z</time>
      </trkpt>
      <trkpt lat="42.32919" lon="0.12745">
        <ele>637.6</ele>
        <time>2015-09-22T11:37:54Z</time>
      </trkpt>
      <trkpt lat="42.32917" lon="0.1275">
        <ele>637.2</ele>
        <time>2015-09-22T11:37:55Z</time>
      </trkpt>
      <trkpt lat="42.32916" lon="0.12756">
        <ele>636.7</ele>
        <time>2015-09-22T11:37:56Z</time>
      </trkpt>
      <trkpt lat="42.32916" lon="0.12762">
        <ele>636.1</ele>
        <time>2015-09-22T11:37:57Z</time>
      </trkpt>
      <trkpt lat="42.32915" lon="0.12769">
        <ele>635.4</ele>
        <time>2015-09-22T11:37:58Z</time>
      </trkpt>
      <trkpt lat="42.32916" lon="0.12777">
        <ele>634.5</ele>
        <time>2015-09-22T11:37:59Z</time>
      </trkpt>
      <trkpt lat="42.32916" lon="0.12782">
        <ele>634</ele>
        <time>2015-09-22T11:38:00Z</time>
      </trkpt>
      <trkpt lat="42.32916" lon="0.12788">
        <ele>633.4</ele>
        <time>2015-09-22T11:38:01Z</time>
      </trkpt>
      <trkpt lat="42.32917" lon="0.12793">
        <ele>633</ele>
        <time>2015-09-22T11:38:02Z</time>
      </trkpt>
      <trkpt lat="42.32918" lon="0.12798">
        <ele>632.8</ele>
        <time>2015-09-22T11:38:03Z</time>
      </trkpt>
      <trkpt lat="42.32919" lon="0.12803">
        <ele>632.7</ele>
        <time>2015-09-22T11:38:04Z</time>
      </trkpt>
      <trkpt lat="42.32921" lon="0.12808">
        <ele>632.6</ele>
        <time>2015-09-22T11:38:05Z</time>
      </trkpt>
      <trkpt lat="42.32922" lon="0.12813">
        <ele>632.5</ele>
        <time>2015-09-22T11:38:06Z</time>
      </trkpt>
      <trkpt lat="42.32923" lon="0.12817">
        <ele>632.5</ele>
        <time>2015-09-22T11:38:07Z</time>
      </trkpt>
      <trkpt lat="42.32923" lon="0.12822">
        <ele>632.4</ele>
        <time>2015-09-22T11:38:08Z</time>
      </trkpt>
      <trkpt lat="42.32922" lon="0.12826">
        <ele>632.3</ele>
        <time>2015-09-22T11:38:09Z</time>
      </trkpt>
      <trkpt lat="42.32922" lon="0.12831">
        <ele>632.2</ele>
        <time>2015-09-22T11:38:10Z</time>
      </trkpt>
      <trkpt lat="42.32921" lon="0.12835">
        <ele>632</ele>
        <time>2015-09-22T11:38:11Z</time>
      </trkpt>
      <trkpt lat="42.32921" lon="0.12839">
        <ele>631.9</ele>
        <time>2015-09-22T11:38:12Z</time>
      </trkpt>
      <trkpt lat="42.3292" lon="0.12843">
        <ele>631.7</ele>
        <time>2015-09-22T11:38:13Z</time>
      </trkpt>
      <trkpt lat="42.32919" lon="0.1285">
        <ele>631.4</ele>
        <time>2015-09-22T11:38:15Z</time>
      </trkpt>
      <trkpt lat="42.32918" lon="0.12856">
        <ele>631.1</ele>
        <time>2015-09-22T11:38:17Z</time>
      </trkpt>
      <trkpt lat="42.32917" lon="0.12863">
        <ele>630.9</ele>
        <time>2015-09-22T11:38:19Z</time>
      </trkpt>
      <trkpt lat="42.32918" lon="0.1287">
        <ele>630.8</ele>
        <time>2015-09-22T11:38:21Z</time>
      </trkpt>
      <trkpt lat="42.32919" lon="0.12877">
        <ele>630.9</ele>
        <time>2015-09-22T11:38:23Z</time>
      </trkpt>
      <trkpt lat="42.32919" lon="0.12883">
        <ele>631.7</ele>
        <time>2015-09-22T11:38:25Z</time>
      </trkpt>
      <trkpt lat="42.32919" lon="0.12889">
        <ele>632.4</ele>
        <time>2015-09-22T11:38:27Z</time>
      </trkpt>
      <trkpt lat="42.32919" lon="0.12894">
        <ele>633</ele>
        <time>2015-09-22T11:38:29Z</time>
      </trkpt>
      <trkpt lat="42.32916" lon="0.12899">
        <ele>633.2</ele>
        <time>2015-09-22T11:38:32Z</time>
      </trkpt>
      <trkpt lat="42.32912" lon="0.12902">
        <ele>633.1</ele>
        <time>2015-09-22T11:38:34Z</time>
      </trkpt>
      <trkpt lat="42.32909" lon="0.12904">
        <ele>632.9</ele>
        <time>2015-09-22T11:38:35Z</time>
      </trkpt>
      <trkpt lat="42.32906" lon="0.12904">
        <ele>632.6</ele>
        <time>2015-09-22T11:38:36Z</time>
      </trkpt>
      <trkpt lat="42.32902" lon="0.12905">
        <ele>632.3</ele>
        <time>2015-09-22T11:38:37Z</time>
      </trkpt>
      <trkpt lat="42.32899" lon="0.12905">
        <ele>632</ele>
        <time>2015-09-22T11:38:38Z</time>
      </trkpt>
      <trkpt lat="42.32896" lon="0.12907">
        <ele>631.9</ele>
        <time>2015-09-22T11:38:39Z</time>
      </trkpt>
      <trkpt lat="42.32891" lon="0.1291">
        <ele>631.6</ele>
        <time>2015-09-22T11:38:41Z</time>
      </trkpt>
      <trkpt lat="42.32888" lon="0.12911">
        <ele>631.6</ele>
        <time>2015-09-22T11:38:42Z</time>
      </trkpt>
      <trkpt lat="42.32885" lon="0.12913">
        <ele>631.6</ele>
        <time>2015-09-22T11:38:43Z</time>
      </trkpt>
      <trkpt lat="42.32883" lon="0.12915">
        <ele>631.6</ele>
        <time>2015-09-22T11:38:44Z</time>
      </trkpt>
      <trkpt lat="42.3288" lon="0.12917">
        <ele>631.6</ele>
        <time>2015-09-22T11:38:45Z</time>
      </trkpt>
      <trkpt lat="42.32877" lon="0.12919">
        <ele>631.6</ele>
        <time>2015-09-22T11:38:46Z</time>
      </trkpt>
      <trkpt lat="42.32875" lon="0.12921">
        <ele>631.6</ele>
        <time>2015-09-22T11:38:47Z</time>
      </trkpt>
      <trkpt lat="42.32872" lon="0.12923">
        <ele>632.1</ele>
        <time>2015-09-22T11:38:48Z</time>
      </trkpt>
      <trkpt lat="42.3287" lon="0.12925">
        <ele>632.7</ele>
        <time>2015-09-22T11:38:49Z</time>
      </trkpt>
      <trkpt lat="42.32866" lon="0.12929">
        <ele>633.8</ele>
        <time>2015-09-22T11:38:51Z</time>
      </trkpt>
      <trkpt lat="42.32863" lon="0.12935">
        <ele>634.9</ele>
        <time>2015-09-22T11:38:53Z</time>
      </trkpt>
      <trkpt lat="42.32861" lon="0.12941">
        <ele>636.1</ele>
        <time>2015-09-22T11:38:55Z</time>
      </trkpt>
      <trkpt lat="42.32857" lon="0.12946">
        <ele>637.2</ele>
        <time>2015-09-22T11:38:57Z</time>
      </trkpt>
      <trkpt lat="42.32853" lon="0.12951">
        <ele>638.3</ele>
        <time>2015-09-22T11:38:59Z</time>
      </trkpt>
      <trkpt lat="42.32849" lon="0.12956">
        <ele>639.4</ele>
        <time>2015-09-22T11:39:01Z</time>
      </trkpt>
      <trkpt lat="42.32844" lon="0.12959">
        <ele>640.4</ele>
        <time>2015-09-22T11:39:03Z</time>
      </trkpt>
      <trkpt lat="42.32841" lon="0.12962">
        <ele>641.1</ele>
        <time>2015-09-22T11:39:05Z</time>
      </trkpt>
      <trkpt lat="42.32839" lon="0.12965">
        <ele>641.7</ele>
        <time>2015-09-22T11:39:07Z</time>
      </trkpt>
      <trkpt lat="42.32836" lon="0.12968">
        <ele>642.3</ele>
        <time>2015-09-22T11:39:09Z</time>
      </trkpt>
      <trkpt lat="42.32835" lon="0.12971">
        <ele>642.8</ele>
        <time>2015-09-22T11:39:11Z</time>
      </trkpt>
      <trkpt lat="42.32834" lon="0.12975">
        <ele>643.3</ele>
        <time>2015-09-22T11:39:13Z</time>
      </trkpt>
      <trkpt lat="42.32834" lon="0.12979">
        <ele>643.9</ele>
        <time>2015-09-22T11:39:15Z</time>
      </trkpt>
      <trkpt lat="42.32833" lon="0.12984">
        <ele>644.4</ele>
        <time>2015-09-22T11:39:17Z</time>
      </trkpt>
      <trkpt lat="42.32834" lon="0.12988">
        <ele>644.9</ele>
        <time>2015-09-22T11:39:19Z</time>
      </trkpt>
      <trkpt lat="42.32835" lon="0.12993">
        <ele>645.3</ele>
        <time>2015-09-22T11:39:21Z</time>
      </trkpt>
      <trkpt lat="42.32836" lon="0.12997">
        <ele>645.7</ele>
        <time>2015-09-22T11:39:23Z</time>
      </trkpt>
      <trkpt lat="42.32837" lon="0.13001">
        <ele>646.2</ele>
        <time>2015-09-22T11:39:25Z</time>
      </trkpt>
      <trkpt lat="42.32837" lon="0.13006">
        <ele>646.8</ele>
        <time>2015-09-22T11:39:27Z</time>
      </trkpt>
      <trkpt lat="42.32834" lon="0.13012">
        <ele>647.6</ele>
        <time>2015-09-22T11:39:29Z</time>
      </trkpt>
      <trkpt lat="42.32832" lon="0.13015">
        <ele>648</ele>
        <time>2015-09-22T11:39:30Z</time>
      </trkpt>
      <trkpt lat="42.3283" lon="0.13017">
        <ele>648.3</ele>
        <time>2015-09-22T11:39:31Z</time>
      </trkpt>
      <trkpt lat="42.32827" lon="0.13018">
        <ele>648.5</ele>
        <time>2015-09-22T11:39:32Z</time>
      </trkpt>
      <trkpt lat="42.32824" lon="0.13019">
        <ele>648.7</ele>
        <time>2015-09-22T11:39:33Z</time>
      </trkpt>
      <trkpt lat="42.32821" lon="0.1302">
        <ele>648.9</ele>
        <time>2015-09-22T11:39:34Z</time>
      </trkpt>
      <trkpt lat="42.32817" lon="0.13021">
        <ele>649.1</ele>
        <time>2015-09-22T11:39:35Z</time>
      </trkpt>
      <trkpt lat="42.32813" lon="0.13022">
        <ele>649.3</ele>
        <time>2015-09-22T11:39:36Z</time>
      </trkpt>
      <trkpt lat="42.32809" lon="0.13023">
        <ele>649.5</ele>
        <time>2015-09-22T11:39:37Z</time>
      </trkpt>
      <trkpt lat="42.32805" lon="0.13025">
        <ele>649.7</ele>
        <time>2015-09-22T11:39:38Z</time>
      </trkpt>
      <trkpt lat="42.32801" lon="0.13026">
        <ele>649.9</ele>
        <time>2015-09-22T11:39:39Z</time>
      </trkpt>
      <trkpt lat="42.32797" lon="0.13026">
        <ele>650</ele>
        <time>2015-09-22T11:39:40Z</time>
      </trkpt>
      <trkpt lat="42.32793" lon="0.13027">
        <ele>650.1</ele>
        <time>2015-09-22T11:39:41Z</time>
      </trkpt>
      <trkpt lat="42.32789" lon="0.13027">
        <ele>650.2</ele>
        <time>2015-09-22T11:39:42Z</time>
      </trkpt>
      <trkpt lat="42.32785" lon="0.13027">
        <ele>650.2</ele>
        <time>2015-09-22T11:39:43Z</time>
      </trkpt>
      <trkpt lat="42.32781" lon="0.13027">
        <ele>650.3</ele>
        <time>2015-09-22T11:39:44Z</time>
      </trkpt>
      <trkpt lat="42.32777" lon="0.13027">
        <ele>650.4</ele>
        <time>2015-09-22T11:39:45Z</time>
      </trkpt>
      <trkpt lat="42.32774" lon="0.13028">
        <ele>650.5</ele>
        <time>2015-09-22T11:39:46Z</time>
      </trkpt>
      <trkpt lat="42.32771" lon="0.1303">
        <ele>650.7</ele>
        <time>2015-09-22T11:39:47Z</time>
      </trkpt>
      <trkpt lat="42.32767" lon="0.13033">
        <ele>650.9</ele>
        <time>2015-09-22T11:39:48Z</time>
      </trkpt>
      <trkpt lat="42.32763" lon="0.13039">
        <ele>651.2</ele>
        <time>2015-09-22T11:39:49Z</time>
      </trkpt>
      <trkpt lat="42.32758" lon="0.13042">
        <ele>651.4</ele>
        <time>2015-09-22T11:39:50Z</time>
      </trkpt>
      <trkpt lat="42.32753" lon="0.13046">
        <ele>651.2</ele>
        <time>2015-09-22T11:39:51Z</time>
      </trkpt>
      <trkpt lat="42.32749" lon="0.13049">
        <ele>651.1</ele>
        <time>2015-09-22T11:39:52Z</time>
      </trkpt>
      <trkpt lat="42.32744" lon="0.13052">
        <ele>651</ele>
        <time>2015-09-22T11:39:53Z</time>
      </trkpt>
      <trkpt lat="42.32739" lon="0.13057">
        <ele>650.7</ele>
        <time>2015-09-22T11:39:54Z</time>
      </trkpt>
      <trkpt lat="42.32734" lon="0.13062">
        <ele>650.4</ele>
        <time>2015-09-22T11:39:55Z</time>
      </trkpt>
      <trkpt lat="42.32729" lon="0.13068">
        <ele>650.1</ele>
        <time>2015-09-22T11:39:56Z</time>
      </trkpt>
      <trkpt lat="42.32725" lon="0.13074">
        <ele>649.7</ele>
        <time>2015-09-22T11:39:57Z</time>
      </trkpt>
      <trkpt lat="42.32721" lon="0.13081">
        <ele>649.3</ele>
        <time>2015-09-22T11:39:58Z</time>
      </trkpt>
      <trkpt lat="42.32717" lon="0.13089">
        <ele>648.7</ele>
        <time>2015-09-22T11:39:59Z</time>
      </trkpt>
      <trkpt lat="42.32714" lon="0.13097">
        <ele>648.1</ele>
        <time>2015-09-22T11:40:00Z</time>
      </trkpt>
      <trkpt lat="42.32711" lon="0.13105">
        <ele>647.5</ele>
        <time>2015-09-22T11:40:01Z</time>
      </trkpt>
      <trkpt lat="42.32707" lon="0.13111">
        <ele>646.9</ele>
        <time>2015-09-22T11:40:02Z</time>
      </trkpt>
      <trkpt lat="42.32702" lon="0.13117">
        <ele>646</ele>
        <time>2015-09-22T11:40:03Z</time>
      </trkpt>
      <trkpt lat="42.32698" lon="0.13122">
        <ele>645.2</ele>
        <time>2015-09-22T11:40:04Z</time>
      </trkpt>
      <trkpt lat="42.32694" lon="0.13126">
        <ele>644.5</ele>
        <time>2015-09-22T11:40:05Z</time>
      </trkpt>
      <trkpt lat="42.3269" lon="0.1313">
        <ele>643.9</ele>
        <time>2015-09-22T11:40:06Z</time>
      </trkpt>
      <trkpt lat="42.32686" lon="0.13133">
        <ele>643.3</ele>
        <time>2015-09-22T11:40:07Z</time>
      </trkpt>
      <trkpt lat="42.32682" lon="0.13136">
        <ele>642.7</ele>
        <time>2015-09-22T11:40:08Z</time>
      </trkpt>
      <trkpt lat="42.32678" lon="0.13141">
        <ele>642</ele>
        <time>2015-09-22T11:40:09Z</time>
      </trkpt>
      <trkpt lat="42.32674" lon="0.13147">
        <ele>641.3</ele>
        <time>2015-09-22T11:40:10Z</time>
      </trkpt>
      <trkpt lat="42.3267" lon="0.13152">
        <ele>640.5</ele>
        <time>2015-09-22T11:40:11Z</time>
      </trkpt>
      <trkpt lat="42.32666" lon="0.13158">
        <ele>639.8</ele>
        <time>2015-09-22T11:40:12Z</time>
      </trkpt>
      <trkpt lat="42.32663" lon="0.13161">
        <ele>639.3</ele>
        <time>2015-09-22T11:40:13Z</time>
      </trkpt>
      <trkpt lat="42.3266" lon="0.13166">
        <ele>638.7</ele>
        <time>2015-09-22T11:40:14Z</time>
      </trkpt>
      <trkpt lat="42.32656" lon="0.13171">
        <ele>638.1</ele>
        <time>2015-09-22T11:40:15Z</time>
      </trkpt>
      <trkpt lat="42.32653" lon="0.13176">
        <ele>637.5</ele>
        <time>2015-09-22T11:40:16Z</time>
      </trkpt>
      <trkpt lat="42.32649" lon="0.1318">
        <ele>636.9</ele>
        <time>2015-09-22T11:40:17Z</time>
      </trkpt>
      <trkpt lat="42.32647" lon="0.13181">
        <ele>636.5</ele>
        <time>2015-09-22T11:40:18Z</time>
      </trkpt>
      <trkpt lat="42.32643" lon="0.13184">
        <ele>636</ele>
        <time>2015-09-22T11:40:20Z</time>
      </trkpt>
      <trkpt lat="42.3264" lon="0.13187">
        <ele>635.6</ele>
        <time>2015-09-22T11:40:21Z</time>
      </trkpt>
      <trkpt lat="42.32638" lon="0.1319">
        <ele>635.3</ele>
        <time>2015-09-22T11:40:22Z</time>
      </trkpt>
      <trkpt lat="42.32635" lon="0.13193">
        <ele>634.8</ele>
        <time>2015-09-22T11:40:24Z</time>
      </trkpt>
      <trkpt lat="42.32632" lon="0.13197">
        <ele>634.2</ele>
        <time>2015-09-22T11:40:26Z</time>
      </trkpt>
      <trkpt lat="42.32628" lon="0.13203">
        <ele>633.6</ele>
        <time>2015-09-22T11:40:28Z</time>
      </trkpt>
      <trkpt lat="42.32625" lon="0.13207">
        <ele>633</ele>
        <time>2015-09-22T11:40:29Z</time>
      </trkpt>
      <trkpt lat="42.32622" lon="0.13211">
        <ele>632.6</ele>
        <time>2015-09-22T11:40:30Z</time>
      </trkpt>
      <trkpt lat="42.32616" lon="0.13222">
        <ele>631.5</ele>
        <time>2015-09-22T11:40:31Z</time>
      </trkpt>
      <trkpt lat="42.32614" lon="0.13228">
        <ele>630.9</ele>
        <time>2015-09-22T11:40:32Z</time>
      </trkpt>
      <trkpt lat="42.32612" lon="0.13236">
        <ele>630.3</ele>
        <time>2015-09-22T11:40:33Z</time>
      </trkpt>
      <trkpt lat="42.32609" lon="0.13243">
        <ele>629.8</ele>
        <time>2015-09-22T11:40:34Z</time>
      </trkpt>
      <trkpt lat="42.32608" lon="0.1325">
        <ele>629.4</ele>
        <time>2015-09-22T11:40:35Z</time>
      </trkpt>
      <trkpt lat="42.32607" lon="0.13257">
        <ele>629</ele>
        <time>2015-09-22T11:40:36Z</time>
      </trkpt>
      <trkpt lat="42.32607" lon="0.13265">
        <ele>628.6</ele>
        <time>2015-09-22T11:40:37Z</time>
      </trkpt>
      <trkpt lat="42.32607" lon="0.13274">
        <ele>628.3</ele>
        <time>2015-09-22T11:40:38Z</time>
      </trkpt>
      <trkpt lat="42.32608" lon="0.13282">
        <ele>628</ele>
        <time>2015-09-22T11:40:39Z</time>
      </trkpt>
      <trkpt lat="42.3261" lon="0.1329">
        <ele>627.8</ele>
        <time>2015-09-22T11:40:40Z</time>
      </trkpt>
      <trkpt lat="42.32612" lon="0.13298">
        <ele>627.3</ele>
        <time>2015-09-22T11:40:41Z</time>
      </trkpt>
      <trkpt lat="42.32613" lon="0.13305">
        <ele>626.8</ele>
        <time>2015-09-22T11:40:42Z</time>
      </trkpt>
      <trkpt lat="42.32613" lon="0.13312">
        <ele>626.2</ele>
        <time>2015-09-22T11:40:43Z</time>
      </trkpt>
      <trkpt lat="42.32612" lon="0.13317">
        <ele>625.5</ele>
        <time>2015-09-22T11:40:44Z</time>
      </trkpt>
      <trkpt lat="42.32609" lon="0.13324">
        <ele>624.7</ele>
        <time>2015-09-22T11:40:45Z</time>
      </trkpt>
      <trkpt lat="42.32606" lon="0.13332">
        <ele>623.8</ele>
        <time>2015-09-22T11:40:46Z</time>
      </trkpt>
      <trkpt lat="42.32604" lon="0.1334">
        <ele>622.9</ele>
        <time>2015-09-22T11:40:47Z</time>
      </trkpt>
      <trkpt lat="42.32601" lon="0.13348">
        <ele>622</ele>
        <time>2015-09-22T11:40:48Z</time>
      </trkpt>
      <trkpt lat="42.32599" lon="0.13355">
        <ele>621.2</ele>
        <time>2015-09-22T11:40:49Z</time>
      </trkpt>
      <trkpt lat="42.32597" lon="0.13362">
        <ele>620.4</ele>
        <time>2015-09-22T11:40:50Z</time>
      </trkpt>
      <trkpt lat="42.32595" lon="0.13368">
        <ele>619.8</ele>
        <time>2015-09-22T11:40:51Z</time>
      </trkpt>
      <trkpt lat="42.32593" lon="0.13373">
        <ele>619.3</ele>
        <time>2015-09-22T11:40:52Z</time>
      </trkpt>
      <trkpt lat="42.3259" lon="0.13377">
        <ele>618.8</ele>
        <time>2015-09-22T11:40:53Z</time>
      </trkpt>
      <trkpt lat="42.32587" lon="0.13385">
        <ele>618</ele>
        <time>2015-09-22T11:40:55Z</time>
      </trkpt>
      <trkpt lat="42.32585" lon="0.13389">
        <ele>617.5</ele>
        <time>2015-09-22T11:40:56Z</time>
      </trkpt>
      <trkpt lat="42.3258" lon="0.13397">
        <ele>616.6</ele>
        <time>2015-09-22T11:40:57Z</time>
      </trkpt>
      <trkpt lat="42.32578" lon="0.13402">
        <ele>616.1</ele>
        <time>2015-09-22T11:40:58Z</time>
      </trkpt>
      <trkpt lat="42.32576" lon="0.13406">
        <ele>615.6</ele>
        <time>2015-09-22T11:40:59Z</time>
      </trkpt>
      <trkpt lat="42.32575" lon="0.1341">
        <ele>615.2</ele>
        <time>2015-09-22T11:41:00Z</time>
      </trkpt>
      <trkpt lat="42.32575" lon="0.13415">
        <ele>614.9</ele>
        <time>2015-09-22T11:41:01Z</time>
      </trkpt>
      <trkpt lat="42.32577" lon="0.1342">
        <ele>614.6</ele>
        <time>2015-09-22T11:41:02Z</time>
      </trkpt>
      <trkpt lat="42.3258" lon="0.13426">
        <ele>614.3</ele>
        <time>2015-09-22T11:41:03Z</time>
      </trkpt>
      <trkpt lat="42.32581" lon="0.13433">
        <ele>613.9</ele>
        <time>2015-09-22T11:41:04Z</time>
      </trkpt>
      <trkpt lat="42.32581" lon="0.13439">
        <ele>613.4</ele>
        <time>2015-09-22T11:41:05Z</time>
      </trkpt>
      <trkpt lat="42.32582" lon="0.13446">
        <ele>612.9</ele>
        <time>2015-09-22T11:41:06Z</time>
      </trkpt>
      <trkpt lat="42.32583" lon="0.13451">
        <ele>612.5</ele>
        <time>2015-09-22T11:41:07Z</time>
      </trkpt>
      <trkpt lat="42.32583" lon="0.13456">
        <ele>612.2</ele>
        <time>2015-09-22T11:41:08Z</time>
      </trkpt>
      <trkpt lat="42.32584" lon="0.13461">
        <ele>612.1</ele>
        <time>2015-09-22T11:41:09Z</time>
      </trkpt>
      <trkpt lat="42.32585" lon="0.13466">
        <ele>612.3</ele>
        <time>2015-09-22T11:41:10Z</time>
      </trkpt>
      <trkpt lat="42.32586" lon="0.13471">
        <ele>612.5</ele>
        <time>2015-09-22T11:41:11Z</time>
      </trkpt>
      <trkpt lat="42.32587" lon="0.13475">
        <ele>612.6</ele>
        <time>2015-09-22T11:41:12Z</time>
      </trkpt>
      <trkpt lat="42.32586" lon="0.13481">
        <ele>612.6</ele>
        <time>2015-09-22T11:41:14Z</time>
      </trkpt>
      <trkpt lat="42.32581" lon="0.13486">
        <ele>612.6</ele>
        <time>2015-09-22T11:41:16Z</time>
      </trkpt>
      <trkpt lat="42.32577" lon="0.1349">
        <ele>612.6</ele>
        <time>2015-09-22T11:41:18Z</time>
      </trkpt>
      <trkpt lat="42.32575" lon="0.13492">
        <ele>612.6</ele>
        <time>2015-09-22T11:41:19Z</time>
      </trkpt>
      <trkpt lat="42.32572" lon="0.13493">
        <ele>612.6</ele>
        <time>2015-09-22T11:41:20Z</time>
      </trkpt>
      <trkpt lat="42.32569" lon="0.13494">
        <ele>612.6</ele>
        <time>2015-09-22T11:41:21Z</time>
      </trkpt>
      <trkpt lat="42.32566" lon="0.13494">
        <ele>612.5</ele>
        <time>2015-09-22T11:41:22Z</time>
      </trkpt>
      <trkpt lat="42.32563" lon="0.13493">
        <ele>612.4</ele>
        <time>2015-09-22T11:41:23Z</time>
      </trkpt>
      <trkpt lat="42.3256" lon="0.13492">
        <ele>612.3</ele>
        <time>2015-09-22T11:41:24Z</time>
      </trkpt>
      <trkpt lat="42.32557" lon="0.13491">
        <ele>612.1</ele>
        <time>2015-09-22T11:41:25Z</time>
      </trkpt>
      <trkpt lat="42.32554" lon="0.13489">
        <ele>611.9</ele>
        <time>2015-09-22T11:41:26Z</time>
      </trkpt>
      <trkpt lat="42.32551" lon="0.13487">
        <ele>611.7</ele>
        <time>2015-09-22T11:41:27Z</time>
      </trkpt>
      <trkpt lat="42.32549" lon="0.13485">
        <ele>611.5</ele>
        <time>2015-09-22T11:41:28Z</time>
      </trkpt>
      <trkpt lat="42.32546" lon="0.13483">
        <ele>611.2</ele>
        <time>2015-09-22T11:41:29Z</time>
      </trkpt>
      <trkpt lat="42.32543" lon="0.13482">
        <ele>611</ele>
        <time>2015-09-22T11:41:30Z</time>
      </trkpt>
      <trkpt lat="42.3254" lon="0.1348">
        <ele>610.8</ele>
        <time>2015-09-22T11:41:31Z</time>
      </trkpt>
      <trkpt lat="42.32536" lon="0.13478">
        <ele>610.7</ele>
        <time>2015-09-22T11:41:32Z</time>
      </trkpt>
      <trkpt lat="42.32533" lon="0.13477">
        <ele>610.7</ele>
        <time>2015-09-22T11:41:33Z</time>
      </trkpt>
      <trkpt lat="42.32529" lon="0.13477">
        <ele>610.7</ele>
        <time>2015-09-22T11:41:34Z</time>
      </trkpt>
      <trkpt lat="42.32526" lon="0.13476">
        <ele>610.7</ele>
        <time>2015-09-22T11:41:35Z</time>
      </trkpt>
      <trkpt lat="42.32522" lon="0.13476">
        <ele>610.7</ele>
        <time>2015-09-22T11:41:37Z</time>
      </trkpt>
      <trkpt lat="42.32517" lon="0.13476">
        <ele>610.8</ele>
        <time>2015-09-22T11:41:39Z</time>
      </trkpt>
      <trkpt lat="42.32513" lon="0.13478">
        <ele>611</ele>
        <time>2015-09-22T11:41:41Z</time>
      </trkpt>
      <trkpt lat="42.32509" lon="0.1348">
        <ele>611.2</ele>
        <time>2015-09-22T11:41:43Z</time>
      </trkpt>
      <trkpt lat="42.32505" lon="0.13482">
        <ele>611.5</ele>
        <time>2015-09-22T11:41:45Z</time>
      </trkpt>
      <trkpt lat="42.32502" lon="0.13485">
        <ele>611.9</ele>
        <time>2015-09-22T11:41:47Z</time>
      </trkpt>
      <trkpt lat="42.325" lon="0.13489">
        <ele>612.4</ele>
        <time>2015-09-22T11:41:49Z</time>
      </trkpt>
      <trkpt lat="42.32499" lon="0.13494">
        <ele>612.8</ele>
        <time>2015-09-22T11:41:51Z</time>
      </trkpt>
      <trkpt lat="42.32498" lon="0.13497">
        <ele>613.3</ele>
        <time>2015-09-22T11:41:53Z</time>
      </trkpt>
      <trkpt lat="42.32497" lon="0.13501">
        <ele>613.7</ele>
        <time>2015-09-22T11:41:55Z</time>
      </trkpt>
      <trkpt lat="42.32496" lon="0.13505">
        <ele>614.2</ele>
        <time>2015-09-22T11:41:57Z</time>
      </trkpt>
      <trkpt lat="42.32493" lon="0.13509">
        <ele>614.7</ele>
        <time>2015-09-22T11:41:59Z</time>
      </trkpt>
      <trkpt lat="42.32491" lon="0.13514">
        <ele>615.2</ele>
        <time>2015-09-22T11:42:01Z</time>
      </trkpt>
      <trkpt lat="42.3249" lon="0.13518">
        <ele>615.8</ele>
        <time>2015-09-22T11:42:03Z</time>
      </trkpt>
      <trkpt lat="42.32488" lon="0.13523">
        <ele>616.4</ele>
        <time>2015-09-22T11:42:05Z</time>
      </trkpt>
      <trkpt lat="42.32485" lon="0.13525">
        <ele>616.8</ele>
        <time>2015-09-22T11:42:07Z</time>
      </trkpt>
      <trkpt lat="42.32483" lon="0.13528">
        <ele>617.2</ele>
        <time>2015-09-22T11:42:09Z</time>
      </trkpt>
      <trkpt lat="42.32481" lon="0.13532">
        <ele>617.7</ele>
        <time>2015-09-22T11:42:11Z</time>
      </trkpt>
      <trkpt lat="42.32478" lon="0.13535">
        <ele>618.2</ele>
        <time>2015-09-22T11:42:13Z</time>
      </trkpt>
      <trkpt lat="42.32476" lon="0.13538">
        <ele>618.7</ele>
        <time>2015-09-22T11:42:15Z</time>
      </trkpt>
      <trkpt lat="42.32474" lon="0.13541">
        <ele>619.2</ele>
        <time>2015-09-22T11:42:17Z</time>
      </trkpt>
      <trkpt lat="42.32471" lon="0.13544">
        <ele>619.6</ele>
        <time>2015-09-22T11:42:19Z</time>
      </trkpt>
      <trkpt lat="42.32468" lon="0.13546">
        <ele>620</ele>
        <time>2015-09-22T11:42:21Z</time>
      </trkpt>
      <trkpt lat="42.32465" lon="0.13549">
        <ele>620.4</ele>
        <time>2015-09-22T11:42:23Z</time>
      </trkpt>
      <trkpt lat="42.32462" lon="0.13552">
        <ele>620.8</ele>
        <time>2015-09-22T11:42:25Z</time>
      </trkpt>
      <trkpt lat="42.32459" lon="0.13556">
        <ele>621.3</ele>
        <time>2015-09-22T11:42:27Z</time>
      </trkpt>
      <trkpt lat="42.32456" lon="0.13559">
        <ele>621.6</ele>
        <time>2015-09-22T11:42:29Z</time>
      </trkpt>
      <trkpt lat="42.32454" lon="0.13562">
        <ele>621.9</ele>
        <time>2015-09-22T11:42:31Z</time>
      </trkpt>
      <trkpt lat="42.32451" lon="0.13564">
        <ele>622.1</ele>
        <time>2015-09-22T11:42:33Z</time>
      </trkpt>
      <trkpt lat="42.32447" lon="0.13564">
        <ele>622.2</ele>
        <time>2015-09-22T11:42:35Z</time>
      </trkpt>
      <trkpt lat="42.32444" lon="0.13565">
        <ele>622.2</ele>
        <time>2015-09-22T11:42:37Z</time>
      </trkpt>
      <trkpt lat="42.32441" lon="0.13564">
        <ele>622.2</ele>
        <time>2015-09-22T11:42:39Z</time>
      </trkpt>
      <trkpt lat="42.32437" lon="0.13563">
        <ele>622.1</ele>
        <time>2015-09-22T11:42:41Z</time>
      </trkpt>
      <trkpt lat="42.32434" lon="0.13563">
        <ele>622.1</ele>
        <time>2015-09-22T11:42:43Z</time>
      </trkpt>
      <trkpt lat="42.3243" lon="0.13562">
        <ele>622</ele>
        <time>2015-09-22T11:42:45Z</time>
      </trkpt>
      <trkpt lat="42.32426" lon="0.13562">
        <ele>622</ele>
        <time>2015-09-22T11:42:47Z</time>
      </trkpt>
      <trkpt lat="42.32423" lon="0.1356">
        <ele>621.8</ele>
        <time>2015-09-22T11:42:49Z</time>
      </trkpt>
      <trkpt lat="42.32419" lon="0.13558">
        <ele>621.7</ele>
        <time>2015-09-22T11:42:51Z</time>
      </trkpt>
      <trkpt lat="42.32415" lon="0.13557">
        <ele>621.5</ele>
        <time>2015-09-22T11:42:53Z</time>
      </trkpt>
      <trkpt lat="42.32412" lon="0.13556">
        <ele>621.5</ele>
        <time>2015-09-22T11:42:54Z</time>
      </trkpt>
      <trkpt lat="42.32409" lon="0.13556">
        <ele>621.4</ele>
        <time>2015-09-22T11:42:55Z</time>
      </trkpt>
      <trkpt lat="42.32406" lon="0.13555">
        <ele>621.4</ele>
        <time>2015-09-22T11:42:56Z</time>
      </trkpt>
      <trkpt lat="42.32402" lon="0.13555">
        <ele>621.3</ele>
        <time>2015-09-22T11:42:57Z</time>
      </trkpt>
      <trkpt lat="42.32398" lon="0.13554">
        <ele>621.3</ele>
        <time>2015-09-22T11:42:58Z</time>
      </trkpt>
      <trkpt lat="42.32394" lon="0.13554">
        <ele>621.3</ele>
        <time>2015-09-22T11:42:59Z</time>
      </trkpt>
      <trkpt lat="42.3239" lon="0.13554">
        <ele>621.3</ele>
        <time>2015-09-22T11:43:00Z</time>
      </trkpt>
      <trkpt lat="42.32386" lon="0.13553">
        <ele>621.2</ele>
        <time>2015-09-22T11:43:01Z</time>
      </trkpt>
      <trkpt lat="42.32383" lon="0.13553">
        <ele>621.2</ele>
        <time>2015-09-22T11:43:02Z</time>
      </trkpt>
      <trkpt lat="42.32379" lon="0.13553">
        <ele>621.2</ele>
        <time>2015-09-22T11:43:03Z</time>
      </trkpt>
      <trkpt lat="42.32375" lon="0.13554">
        <ele>621.3</ele>
        <time>2015-09-22T11:43:04Z</time>
      </trkpt>
      <trkpt lat="42.32372" lon="0.13555">
        <ele>621.1</ele>
        <time>2015-09-22T11:43:05Z</time>
      </trkpt>
      <trkpt lat="42.32369" lon="0.13557">
        <ele>621</ele>
        <time>2015-09-22T11:43:06Z</time>
      </trkpt>
      <trkpt lat="42.32366" lon="0.13558">
        <ele>621</ele>
        <time>2015-09-22T11:43:07Z</time>
      </trkpt>
      <trkpt lat="42.32363" lon="0.1356">
        <ele>620.8</ele>
        <time>2015-09-22T11:43:08Z</time>
      </trkpt>
      <trkpt lat="42.32361" lon="0.13562">
        <ele>620.8</ele>
        <time>2015-09-22T11:43:09Z</time>
      </trkpt>
      <trkpt lat="42.32358" lon="0.13563">
        <ele>620.6</ele>
        <time>2015-09-22T11:43:10Z</time>
      </trkpt>
      <trkpt lat="42.32353" lon="0.13566">
        <ele>620.3</ele>
        <time>2015-09-22T11:43:12Z</time>
      </trkpt>
      <trkpt lat="42.3235" lon="0.13568">
        <ele>620.3</ele>
        <time>2015-09-22T11:43:13Z</time>
      </trkpt>
      <trkpt lat="42.32348" lon="0.13569">
        <ele>620.1</ele>
        <time>2015-09-22T11:43:14Z</time>
      </trkpt>
      <trkpt lat="42.32346" lon="0.13573">
        <ele>620.3</ele>
        <time>2015-09-22T11:43:15Z</time>
      </trkpt>
      <trkpt lat="42.32344" lon="0.13575">
        <ele>620.3</ele>
        <time>2015-09-22T11:43:16Z</time>
      </trkpt>
      <trkpt lat="42.32342" lon="0.13582">
        <ele>620.6</ele>
        <time>2015-09-22T11:43:18Z</time>
      </trkpt>
      <trkpt lat="42.3234" lon="0.13585">
        <ele>620.6</ele>
        <time>2015-09-22T11:43:19Z</time>
      </trkpt>
      <trkpt lat="42.32338" lon="0.13587">
        <ele>620.6</ele>
        <time>2015-09-22T11:43:20Z</time>
      </trkpt>
      <trkpt lat="42.32334" lon="0.13589">
        <ele>620.3</ele>
        <time>2015-09-22T11:43:21Z</time>
      </trkpt>
      <trkpt lat="42.32331" lon="0.13591">
        <ele>620</ele>
        <time>2015-09-22T11:43:22Z</time>
      </trkpt>
      <trkpt lat="42.32327" lon="0.13593">
        <ele>619.7</ele>
        <time>2015-09-22T11:43:23Z</time>
      </trkpt>
      <trkpt lat="42.32323" lon="0.13596">
        <ele>619.5</ele>
        <time>2015-09-22T11:43:24Z</time>
      </trkpt>
      <trkpt lat="42.32319" lon="0.13598">
        <ele>619.1</ele>
        <time>2015-09-22T11:43:25Z</time>
      </trkpt>
      <trkpt lat="42.32315" lon="0.136">
        <ele>618.8</ele>
        <time>2015-09-22T11:43:26Z</time>
      </trkpt>
      <trkpt lat="42.32311" lon="0.13603">
        <ele>618.4</ele>
        <time>2015-09-22T11:43:27Z</time>
      </trkpt>
      <trkpt lat="42.32308" lon="0.13605">
        <ele>618.1</ele>
        <time>2015-09-22T11:43:28Z</time>
      </trkpt>
      <trkpt lat="42.32304" lon="0.13607">
        <ele>617.7</ele>
        <time>2015-09-22T11:43:29Z</time>
      </trkpt>
      <trkpt lat="42.323" lon="0.13609">
        <ele>617.3</ele>
        <time>2015-09-22T11:43:30Z</time>
      </trkpt>
      <trkpt lat="42.32296" lon="0.13612">
        <ele>616.9</ele>
        <time>2015-09-22T11:43:31Z</time>
      </trkpt>
      <trkpt lat="42.32292" lon="0.13614">
        <ele>616.6</ele>
        <time>2015-09-22T11:43:32Z</time>
      </trkpt>
      <trkpt lat="42.32289" lon="0.13619">
        <ele>616.4</ele>
        <time>2015-09-22T11:43:33Z</time>
      </trkpt>
      <trkpt lat="42.32286" lon="0.13622">
        <ele>616.2</ele>
        <time>2015-09-22T11:43:34Z</time>
      </trkpt>
      <trkpt lat="42.32282" lon="0.13625">
        <ele>616</ele>
        <time>2015-09-22T11:43:35Z</time>
      </trkpt>
      <trkpt lat="42.32276" lon="0.13629">
        <ele>615.7</ele>
        <time>2015-09-22T11:43:36Z</time>
      </trkpt>
      <trkpt lat="42.32271" lon="0.13632">
        <ele>615.5</ele>
        <time>2015-09-22T11:43:37Z</time>
      </trkpt>
      <trkpt lat="42.32266" lon="0.13635">
        <ele>615.3</ele>
        <time>2015-09-22T11:43:38Z</time>
      </trkpt>
      <trkpt lat="42.32261" lon="0.13638">
        <ele>615.2</ele>
        <time>2015-09-22T11:43:39Z</time>
      </trkpt>
      <trkpt lat="42.32256" lon="0.13642">
        <ele>615.1</ele>
        <time>2015-09-22T11:43:40Z</time>
      </trkpt>
      <trkpt lat="42.32251" lon="0.13646">
        <ele>615</ele>
        <time>2015-09-22T11:43:41Z</time>
      </trkpt>
      <trkpt lat="42.32246" lon="0.13649">
        <ele>615</ele>
        <time>2015-09-22T11:43:42Z</time>
      </trkpt>
      <trkpt lat="42.32241" lon="0.13653">
        <ele>614.9</ele>
        <time>2015-09-22T11:43:43Z</time>
      </trkpt>
      <trkpt lat="42.32236" lon="0.13657">
        <ele>614.9</ele>
        <time>2015-09-22T11:43:44Z</time>
      </trkpt>
      <trkpt lat="42.3223" lon="0.13661">
        <ele>614.8</ele>
        <time>2015-09-22T11:43:45Z</time>
      </trkpt>
      <trkpt lat="42.32224" lon="0.13664">
        <ele>614.7</ele>
        <time>2015-09-22T11:43:46Z</time>
      </trkpt>
      <trkpt lat="42.32219" lon="0.13668">
        <ele>614.7</ele>
        <time>2015-09-22T11:43:47Z</time>
      </trkpt>
      <trkpt lat="42.32213" lon="0.13671">
        <ele>614.5</ele>
        <time>2015-09-22T11:43:48Z</time>
      </trkpt>
      <trkpt lat="42.32207" lon="0.13673">
        <ele>614.4</ele>
        <time>2015-09-22T11:43:49Z</time>
      </trkpt>
      <trkpt lat="42.32203" lon="0.13674">
        <ele>614.6</ele>
        <time>2015-09-22T11:43:50Z</time>
      </trkpt>
      <trkpt lat="42.32199" lon="0.13673">
        <ele>614.6</ele>
        <time>2015-09-22T11:43:52Z</time>
      </trkpt>
      <trkpt lat="42.32197" lon="0.13675">
        <ele>614.9</ele>
        <time>2015-09-22T11:43:54Z</time>
      </trkpt>
      <trkpt lat="42.32196" lon="0.13679">
        <ele>615.4</ele>
        <time>2015-09-22T11:43:56Z</time>
      </trkpt>
      <trkpt lat="42.32199" lon="0.13681">
        <ele>615.6</ele>
        <time>2015-09-22T11:43:58Z</time>
      </trkpt>
      <trkpt lat="42.32203" lon="0.13685">
        <ele>616.1</ele>
        <time>2015-09-22T11:44:00Z</time>
      </trkpt>
      <trkpt lat="42.32205" lon="0.1369">
        <ele>616.7</ele>
        <time>2015-09-22T11:44:02Z</time>
      </trkpt>
      <trkpt lat="42.32207" lon="0.13695">
        <ele>617.2</ele>
        <time>2015-09-22T11:44:04Z</time>
      </trkpt>
      <trkpt lat="42.32208" lon="0.137">
        <ele>617.9</ele>
        <time>2015-09-22T11:44:06Z</time>
      </trkpt>
      <trkpt lat="42.3221" lon="0.13705">
        <ele>618.7</ele>
        <time>2015-09-22T11:44:08Z</time>
      </trkpt>
      <trkpt lat="42.32213" lon="0.13711">
        <ele>619.4</ele>
        <time>2015-09-22T11:44:10Z</time>
      </trkpt>
      <trkpt lat="42.32214" lon="0.13715">
        <ele>619.6</ele>
        <time>2015-09-22T11:44:11Z</time>
      </trkpt>
      <trkpt lat="42.32216" lon="0.13718">
        <ele>619.9</ele>
        <time>2015-09-22T11:44:12Z</time>
      </trkpt>
      <trkpt lat="42.32217" lon="0.13721">
        <ele>620.1</ele>
        <time>2015-09-22T11:44:13Z</time>
      </trkpt>
      <trkpt lat="42.32219" lon="0.13725">
        <ele>620.3</ele>
        <time>2015-09-22T11:44:14Z</time>
      </trkpt>
      <trkpt lat="42.3222" lon="0.13728">
        <ele>620.5</ele>
        <time>2015-09-22T11:44:15Z</time>
      </trkpt>
      <trkpt lat="42.32224" lon="0.13733">
        <ele>620.9</ele>
        <time>2015-09-22T11:44:17Z</time>
      </trkpt>
      <trkpt lat="42.32227" lon="0.13738">
        <ele>621.3</ele>
        <time>2015-09-22T11:44:19Z</time>
      </trkpt>
      <trkpt lat="42.32231" lon="0.13743">
        <ele>621.7</ele>
        <time>2015-09-22T11:44:21Z</time>
      </trkpt>
      <trkpt lat="42.32234" lon="0.13748">
        <ele>622.1</ele>
        <time>2015-09-22T11:44:23Z</time>
      </trkpt>
      <trkpt lat="42.32237" lon="0.13753">
        <ele>622.4</ele>
        <time>2015-09-22T11:44:25Z</time>
      </trkpt>
      <trkpt lat="42.32239" lon="0.13758">
        <ele>622.8</ele>
        <time>2015-09-22T11:44:27Z</time>
      </trkpt>
      <trkpt lat="42.32241" lon="0.13763">
        <ele>623.1</ele>
        <time>2015-09-22T11:44:29Z</time>
      </trkpt>
      <trkpt lat="42.32244" lon="0.13764">
        <ele>623.4</ele>
        <time>2015-09-22T11:44:42Z</time>
      </trkpt>
      <trkpt lat="42.32247" lon="0.13766">
        <ele>623.6</ele>
        <time>2015-09-22T11:44:47Z</time>
      </trkpt>
      <trkpt lat="42.3225" lon="0.13767">
        <ele>623.9</ele>
        <time>2015-09-22T11:44:51Z</time>
      </trkpt>
      <trkpt lat="42.32253" lon="0.1377">
        <ele>624.2</ele>
        <time>2015-09-22T11:44:55Z</time>
      </trkpt>
      <trkpt lat="42.32256" lon="0.13772">
        <ele>624.5</ele>
        <time>2015-09-22T11:44:59Z</time>
      </trkpt>
      <trkpt lat="42.32259" lon="0.13773">
        <ele>624.8</ele>
        <time>2015-09-22T11:45:03Z</time>
      </trkpt>
      <trkpt lat="42.32262" lon="0.13775">
        <ele>625.1</ele>
        <time>2015-09-22T11:45:07Z</time>
      </trkpt>
      <trkpt lat="42.32264" lon="0.13777">
        <ele>625.3</ele>
        <time>2015-09-22T11:45:14Z</time>
      </trkpt>
      <trkpt lat="42.32268" lon="0.13779">
        <ele>625.7</ele>
        <time>2015-09-22T11:45:17Z</time>
      </trkpt>
      <trkpt lat="42.32269" lon="0.13782">
        <ele>625.9</ele>
        <time>2015-09-22T11:45:19Z</time>
      </trkpt>
      <trkpt lat="42.3227" lon="0.13786">
        <ele>626.1</ele>
        <time>2015-09-22T11:45:21Z</time>
      </trkpt>
      <trkpt lat="42.32272" lon="0.13788">
        <ele>626.3</ele>
        <time>2015-09-22T11:45:23Z</time>
      </trkpt>
      <trkpt lat="42.32276" lon="0.13788">
        <ele>626.6</ele>
        <time>2015-09-22T11:45:26Z</time>
      </trkpt>
      <trkpt lat="42.32278" lon="0.13785">
        <ele>626.7</ele>
        <time>2015-09-22T11:45:28Z</time>
      </trkpt>
      <trkpt lat="42.32281" lon="0.13784">
        <ele>626.9</ele>
        <time>2015-09-22T11:45:30Z</time>
      </trkpt>
      <trkpt lat="42.32285" lon="0.13783">
        <ele>627.2</ele>
        <time>2015-09-22T11:45:32Z</time>
      </trkpt>
      <trkpt lat="42.32288" lon="0.1378">
        <ele>627.4</ele>
        <time>2015-09-22T11:45:34Z</time>
      </trkpt>
      <trkpt lat="42.32292" lon="0.13779">
        <ele>627.7</ele>
        <time>2015-09-22T11:45:36Z</time>
      </trkpt>
      <trkpt lat="42.32295" lon="0.13779">
        <ele>628.7</ele>
        <time>2015-09-22T11:45:38Z</time>
      </trkpt>
      <trkpt lat="42.32298" lon="0.13777">
        <ele>629.3</ele>
        <time>2015-09-22T11:45:46Z</time>
      </trkpt>
      <trkpt lat="42.323" lon="0.13776">
        <ele>630</ele>
        <time>2015-09-22T11:45:50Z</time>
      </trkpt>
      <trkpt lat="42.32303" lon="0.13774">
        <ele>630.8</ele>
        <time>2015-09-22T11:45:54Z</time>
      </trkpt>
      <trkpt lat="42.32306" lon="0.13775">
        <ele>631.7</ele>
        <time>2015-09-22T11:45:58Z</time>
      </trkpt>
      <trkpt lat="42.32309" lon="0.13776">
        <ele>632.6</ele>
        <time>2015-09-22T11:46:02Z</time>
      </trkpt>
      <trkpt lat="42.32312" lon="0.13777">
        <ele>633.6</ele>
        <time>2015-09-22T11:46:07Z</time>
      </trkpt>
      <trkpt lat="42.32315" lon="0.13778">
        <ele>634.4</ele>
        <time>2015-09-22T11:46:12Z</time>
      </trkpt>
      <trkpt lat="42.32317" lon="0.13782">
        <ele>635.3</ele>
        <time>2015-09-22T11:46:16Z</time>
      </trkpt>
      <trkpt lat="42.32319" lon="0.13786">
        <ele>636</ele>
        <time>2015-09-22T11:46:20Z</time>
      </trkpt>
      <trkpt lat="42.32321" lon="0.13789">
        <ele>636.6</ele>
        <time>2015-09-22T11:46:27Z</time>
      </trkpt>
      <trkpt lat="42.32323" lon="0.13792">
        <ele>637.3</ele>
        <time>2015-09-22T11:46:29Z</time>
      </trkpt>
      <trkpt lat="42.32324" lon="0.13796">
        <ele>637.2</ele>
        <time>2015-09-22T11:46:31Z</time>
      </trkpt>
      <trkpt lat="42.32325" lon="0.138">
        <ele>636.9</ele>
        <time>2015-09-22T11:46:33Z</time>
      </trkpt>
      <trkpt lat="42.32325" lon="0.13804">
        <ele>636.5</ele>
        <time>2015-09-22T11:46:35Z</time>
      </trkpt>
      <trkpt lat="42.32325" lon="0.13809">
        <ele>635.8</ele>
        <time>2015-09-22T11:46:38Z</time>
      </trkpt>
      <trkpt lat="42.32327" lon="0.13813">
        <ele>635.7</ele>
        <time>2015-09-22T11:46:41Z</time>
      </trkpt>
      <trkpt lat="42.32329" lon="0.13818">
        <ele>635.6</ele>
        <time>2015-09-22T11:46:44Z</time>
      </trkpt>
      <trkpt lat="42.3233" lon="0.13824">
        <ele>635.2</ele>
        <time>2015-09-22T11:46:46Z</time>
      </trkpt>
      <trkpt lat="42.32331" lon="0.1383">
        <ele>634.9</ele>
        <time>2015-09-22T11:46:48Z</time>
      </trkpt>
      <trkpt lat="42.32333" lon="0.13834">
        <ele>634.8</ele>
        <time>2015-09-22T11:46:50Z</time>
      </trkpt>
      <trkpt lat="42.32334" lon="0.13838">
        <ele>634.7</ele>
        <time>2015-09-22T11:46:52Z</time>
      </trkpt>
      <trkpt lat="42.32337" lon="0.13839">
        <ele>635.3</ele>
        <time>2015-09-22T11:46:55Z</time>
      </trkpt>
      <trkpt lat="42.3234" lon="0.13842">
        <ele>635.7</ele>
        <time>2015-09-22T11:46:58Z</time>
      </trkpt>
      <trkpt lat="42.32342" lon="0.13844">
        <ele>636</ele>
        <time>2015-09-22T11:47:01Z</time>
      </trkpt>
      <trkpt lat="42.32343" lon="0.13848">
        <ele>635.9</ele>
        <time>2015-09-22T11:47:06Z</time>
      </trkpt>
      <trkpt lat="42.32346" lon="0.13851">
        <ele>636.2</ele>
        <time>2015-09-22T11:47:11Z</time>
      </trkpt>
      <trkpt lat="42.32346" lon="0.13855">
        <ele>635.7</ele>
        <time>2015-09-22T11:47:19Z</time>
      </trkpt>
      <trkpt lat="42.32345" lon="0.13859">
        <ele>634.9</ele>
        <time>2015-09-22T11:47:26Z</time>
      </trkpt>
      <trkpt lat="42.32347" lon="0.13862">
        <ele>634.9</ele>
        <time>2015-09-22T11:47:31Z</time>
      </trkpt>
      <trkpt lat="42.32349" lon="0.13865">
        <ele>635.2</ele>
        <time>2015-09-22T11:47:35Z</time>
      </trkpt>
      <trkpt lat="42.32352" lon="0.13867">
        <ele>635.9</ele>
        <time>2015-09-22T11:47:39Z</time>
      </trkpt>
      <trkpt lat="42.32355" lon="0.1387">
        <ele>636.2</ele>
        <time>2015-09-22T11:47:43Z</time>
      </trkpt>
      <trkpt lat="42.32357" lon="0.13874">
        <ele>636.2</ele>
        <time>2015-09-22T11:47:47Z</time>
      </trkpt>
      <trkpt lat="42.32358" lon="0.13877">
        <ele>636</ele>
        <time>2015-09-22T11:47:50Z</time>
      </trkpt>
      <trkpt lat="42.3236" lon="0.13881">
        <ele>635.6</ele>
        <time>2015-09-22T11:47:54Z</time>
      </trkpt>
      <trkpt lat="42.32361" lon="0.13885">
        <ele>635.2</ele>
        <time>2015-09-22T11:47:58Z</time>
      </trkpt>
      <trkpt lat="42.32364" lon="0.13883">
        <ele>636.4</ele>
        <time>2015-09-22T11:48:05Z</time>
      </trkpt>
      <trkpt lat="42.32365" lon="0.13879">
        <ele>637.3</ele>
        <time>2015-09-22T11:48:09Z</time>
      </trkpt>
      <trkpt lat="42.32364" lon="0.13875">
        <ele>638</ele>
        <time>2015-09-22T11:48:13Z</time>
      </trkpt>
      <trkpt lat="42.32363" lon="0.13872">
        <ele>638</ele>
        <time>2015-09-22T11:48:17Z</time>
      </trkpt>
      <trkpt lat="42.32362" lon="0.13868">
        <ele>638.4</ele>
        <time>2015-09-22T11:48:21Z</time>
      </trkpt>
      <trkpt lat="42.32361" lon="0.13864">
        <ele>638.7</ele>
        <time>2015-09-22T11:48:25Z</time>
      </trkpt>
      <trkpt lat="42.32361" lon="0.1386">
        <ele>639.3</ele>
        <time>2015-09-22T11:48:29Z</time>
      </trkpt>
      <trkpt lat="42.32364" lon="0.13858">
        <ele>640.3</ele>
        <time>2015-09-22T11:48:33Z</time>
      </trkpt>
      <trkpt lat="42.32367" lon="0.13859">
        <ele>641</ele>
        <time>2015-09-22T11:48:37Z</time>
      </trkpt>
      <trkpt lat="42.32369" lon="0.13856">
        <ele>641.9</ele>
        <time>2015-09-22T11:48:41Z</time>
      </trkpt>
      <trkpt lat="42.32369" lon="0.13851">
        <ele>642.7</ele>
        <time>2015-09-22T11:48:45Z</time>
      </trkpt>
      <trkpt lat="42.3237" lon="0.13847">
        <ele>643.7</ele>
        <time>2015-09-22T11:48:49Z</time>
      </trkpt>
      <trkpt lat="42.32373" lon="0.13843">
        <ele>644.9</ele>
        <time>2015-09-22T11:48:54Z</time>
      </trkpt>
      <trkpt lat="42.32376" lon="0.1384">
        <ele>646.2</ele>
        <time>2015-09-22T11:48:56Z</time>
      </trkpt>
      <trkpt lat="42.32379" lon="0.13836">
        <ele>647.1</ele>
        <time>2015-09-22T11:48:58Z</time>
      </trkpt>
      <trkpt lat="42.32382" lon="0.13833">
        <ele>648.1</ele>
        <time>2015-09-22T11:49:00Z</time>
      </trkpt>
      <trkpt lat="42.32385" lon="0.1383">
        <ele>649</ele>
        <time>2015-09-22T11:49:02Z</time>
      </trkpt>
      <trkpt lat="42.32389" lon="0.13826">
        <ele>650.1</ele>
        <time>2015-09-22T11:49:04Z</time>
      </trkpt>
      <trkpt lat="42.32392" lon="0.13823">
        <ele>651</ele>
        <time>2015-09-22T11:49:06Z</time>
      </trkpt>
      <trkpt lat="42.32396" lon="0.1382">
        <ele>652</ele>
        <time>2015-09-22T11:49:08Z</time>
      </trkpt>
      <trkpt lat="42.32399" lon="0.13817">
        <ele>653</ele>
        <time>2015-09-22T11:49:10Z</time>
      </trkpt>
      <trkpt lat="42.32403" lon="0.13815">
        <ele>654</ele>
        <time>2015-09-22T11:49:12Z</time>
      </trkpt>
      <trkpt lat="42.32407" lon="0.13812">
        <ele>655.1</ele>
        <time>2015-09-22T11:49:14Z</time>
      </trkpt>
      <trkpt lat="42.32411" lon="0.13809">
        <ele>656.2</ele>
        <time>2015-09-22T11:49:16Z</time>
      </trkpt>
      <trkpt lat="42.32414" lon="0.13806">
        <ele>657.2</ele>
        <time>2015-09-22T11:49:18Z</time>
      </trkpt>
      <trkpt lat="42.32419" lon="0.13804">
        <ele>658.2</ele>
        <time>2015-09-22T11:49:20Z</time>
      </trkpt>
      <trkpt lat="42.32423" lon="0.13802">
        <ele>659.3</ele>
        <time>2015-09-22T11:49:22Z</time>
      </trkpt>
      <trkpt lat="42.32427" lon="0.13799">
        <ele>660.4</ele>
        <time>2015-09-22T11:49:24Z</time>
      </trkpt>
      <trkpt lat="42.32431" lon="0.13796">
        <ele>661.6</ele>
        <time>2015-09-22T11:49:26Z</time>
      </trkpt>
      <trkpt lat="42.32435" lon="0.13793">
        <ele>662.7</ele>
        <time>2015-09-22T11:49:28Z</time>
      </trkpt>
      <trkpt lat="42.32439" lon="0.13792">
        <ele>663.7</ele>
        <time>2015-09-22T11:49:30Z</time>
      </trkpt>
      <trkpt lat="42.32444" lon="0.13792">
        <ele>664.5</ele>
        <time>2015-09-22T11:49:32Z</time>
      </trkpt>
      <trkpt lat="42.32448" lon="0.1379">
        <ele>665</ele>
        <time>2015-09-22T11:49:34Z</time>
      </trkpt>
      <trkpt lat="42.32452" lon="0.13788">
        <ele>665.3</ele>
        <time>2015-09-22T11:49:36Z</time>
      </trkpt>
      <trkpt lat="42.32456" lon="0.13785">
        <ele>665.6</ele>
        <time>2015-09-22T11:49:38Z</time>
      </trkpt>
      <trkpt lat="42.32459" lon="0.13783">
        <ele>665.6</ele>
        <time>2015-09-22T11:49:40Z</time>
      </trkpt>
      <trkpt lat="42.32463" lon="0.13782">
        <ele>665.4</ele>
        <time>2015-09-22T11:49:42Z</time>
      </trkpt>
      <trkpt lat="42.32467" lon="0.1378">
        <ele>665.1</ele>
        <time>2015-09-22T11:49:44Z</time>
      </trkpt>
      <trkpt lat="42.3247" lon="0.13779">
        <ele>664.8</ele>
        <time>2015-09-22T11:49:46Z</time>
      </trkpt>
      <trkpt lat="42.32474" lon="0.13777">
        <ele>664.5</ele>
        <time>2015-09-22T11:49:48Z</time>
      </trkpt>
      <trkpt lat="42.32477" lon="0.13775">
        <ele>664.1</ele>
        <time>2015-09-22T11:49:50Z</time>
      </trkpt>
      <trkpt lat="42.32481" lon="0.13775">
        <ele>664</ele>
        <time>2015-09-22T11:49:52Z</time>
      </trkpt>
      <trkpt lat="42.32485" lon="0.13775">
        <ele>664.1</ele>
        <time>2015-09-22T11:49:54Z</time>
      </trkpt>
      <trkpt lat="42.32489" lon="0.13776">
        <ele>664.2</ele>
        <time>2015-09-22T11:49:56Z</time>
      </trkpt>
      <trkpt lat="42.32492" lon="0.13778">
        <ele>664.4</ele>
        <time>2015-09-22T11:49:58Z</time>
      </trkpt>
      <trkpt lat="42.32494" lon="0.13782">
        <ele>665.2</ele>
        <time>2015-09-22T11:50:03Z</time>
      </trkpt>
      <trkpt lat="42.32494" lon="0.13786">
        <ele>666</ele>
        <time>2015-09-22T11:50:07Z</time>
      </trkpt>
      <trkpt lat="42.32495" lon="0.1379">
        <ele>666.7</ele>
        <time>2015-09-22T11:50:12Z</time>
      </trkpt>
      <trkpt lat="42.32497" lon="0.13792">
        <ele>667</ele>
        <time>2015-09-22T11:50:16Z</time>
      </trkpt>
      <trkpt lat="42.325" lon="0.13792">
        <ele>667</ele>
        <time>2015-09-22T11:50:20Z</time>
      </trkpt>
      <trkpt lat="42.32504" lon="0.13792">
        <ele>666.9</ele>
        <time>2015-09-22T11:50:24Z</time>
      </trkpt>
      <trkpt lat="42.32506" lon="0.13792">
        <ele>666.9</ele>
        <time>2015-09-22T11:50:27Z</time>
      </trkpt>
      <trkpt lat="42.32509" lon="0.13792">
        <ele>667</ele>
        <time>2015-09-22T11:50:30Z</time>
      </trkpt>
      <trkpt lat="42.32513" lon="0.13792">
        <ele>667</ele>
        <time>2015-09-22T11:50:32Z</time>
      </trkpt>
      <trkpt lat="42.32517" lon="0.13791">
        <ele>666.8</ele>
        <time>2015-09-22T11:50:34Z</time>
      </trkpt>
      <trkpt lat="42.32522" lon="0.13789">
        <ele>666.4</ele>
        <time>2015-09-22T11:50:36Z</time>
      </trkpt>
      <trkpt lat="42.32526" lon="0.13788">
        <ele>666.3</ele>
        <time>2015-09-22T11:50:38Z</time>
      </trkpt>
      <trkpt lat="42.3253" lon="0.13787">
        <ele>666</ele>
        <time>2015-09-22T11:50:40Z</time>
      </trkpt>
      <trkpt lat="42.32534" lon="0.13786">
        <ele>665.7</ele>
        <time>2015-09-22T11:50:42Z</time>
      </trkpt>
      <trkpt lat="42.32537" lon="0.13785">
        <ele>665.4</ele>
        <time>2015-09-22T11:50:43Z</time>
      </trkpt>
      <trkpt lat="42.3254" lon="0.13784">
        <ele>665.2</ele>
        <time>2015-09-22T11:50:44Z</time>
      </trkpt>
      <trkpt lat="42.32543" lon="0.13783">
        <ele>665.1</ele>
        <time>2015-09-22T11:50:45Z</time>
      </trkpt>
      <trkpt lat="42.32546" lon="0.13783">
        <ele>665.1</ele>
        <time>2015-09-22T11:50:46Z</time>
      </trkpt>
      <trkpt lat="42.32549" lon="0.13783">
        <ele>665.1</ele>
        <time>2015-09-22T11:50:47Z</time>
      </trkpt>
      <trkpt lat="42.32553" lon="0.13782">
        <ele>665.1</ele>
        <time>2015-09-22T11:50:48Z</time>
      </trkpt>
      <trkpt lat="42.32556" lon="0.13782">
        <ele>665</ele>
        <time>2015-09-22T11:50:49Z</time>
      </trkpt>
      <trkpt lat="42.32559" lon="0.13781">
        <ele>664.9</ele>
        <time>2015-09-22T11:50:50Z</time>
      </trkpt>
      <trkpt lat="42.32562" lon="0.13781">
        <ele>664.8</ele>
        <time>2015-09-22T11:50:51Z</time>
      </trkpt>
      <trkpt lat="42.32565" lon="0.1378">
        <ele>664.8</ele>
        <time>2015-09-22T11:50:52Z</time>
      </trkpt>
      <trkpt lat="42.32569" lon="0.13781">
        <ele>665</ele>
        <time>2015-09-22T11:50:53Z</time>
      </trkpt>
      <trkpt lat="42.32572" lon="0.13782">
        <ele>665.4</ele>
        <time>2015-09-22T11:50:54Z</time>
      </trkpt>
      <trkpt lat="42.32576" lon="0.13784">
        <ele>665.9</ele>
        <time>2015-09-22T11:50:55Z</time>
      </trkpt>
      <trkpt lat="42.3258" lon="0.13786">
        <ele>666.5</ele>
        <time>2015-09-22T11:50:56Z</time>
      </trkpt>
      <trkpt lat="42.32583" lon="0.13788">
        <ele>667</ele>
        <time>2015-09-22T11:50:57Z</time>
      </trkpt>
      <trkpt lat="42.32586" lon="0.13789">
        <ele>667.5</ele>
        <time>2015-09-22T11:50:58Z</time>
      </trkpt>
      <trkpt lat="42.32589" lon="0.13791">
        <ele>668</ele>
        <time>2015-09-22T11:50:59Z</time>
      </trkpt>
      <trkpt lat="42.32592" lon="0.13793">
        <ele>668</ele>
        <time>2015-09-22T11:51:00Z</time>
      </trkpt>
      <trkpt lat="42.32595" lon="0.13795">
        <ele>667.8</ele>
        <time>2015-09-22T11:51:01Z</time>
      </trkpt>
      <trkpt lat="42.32598" lon="0.13796">
        <ele>667.7</ele>
        <time>2015-09-22T11:51:02Z</time>
      </trkpt>
      <trkpt lat="42.32602" lon="0.13797">
        <ele>667.5</ele>
        <time>2015-09-22T11:51:03Z</time>
      </trkpt>
      <trkpt lat="42.32604" lon="0.13799">
        <ele>667.4</ele>
        <time>2015-09-22T11:51:04Z</time>
      </trkpt>
      <trkpt lat="42.32607" lon="0.138">
        <ele>667.2</ele>
        <time>2015-09-22T11:51:05Z</time>
      </trkpt>
      <trkpt lat="42.3261" lon="0.13802">
        <ele>667.1</ele>
        <time>2015-09-22T11:51:06Z</time>
      </trkpt>
      <trkpt lat="42.32613" lon="0.13802">
        <ele>667.1</ele>
        <time>2015-09-22T11:51:07Z</time>
      </trkpt>
      <trkpt lat="42.32616" lon="0.13803">
        <ele>667</ele>
        <time>2015-09-22T11:51:08Z</time>
      </trkpt>
      <trkpt lat="42.32619" lon="0.13802">
        <ele>667.2</ele>
        <time>2015-09-22T11:51:09Z</time>
      </trkpt>
      <trkpt lat="42.32622" lon="0.13801">
        <ele>667.5</ele>
        <time>2015-09-22T11:51:10Z</time>
      </trkpt>
      <trkpt lat="42.32626" lon="0.13799">
        <ele>667.9</ele>
        <time>2015-09-22T11:51:11Z</time>
      </trkpt>
      <trkpt lat="42.32629" lon="0.13797">
        <ele>668.3</ele>
        <time>2015-09-22T11:51:12Z</time>
      </trkpt>
      <trkpt lat="42.32633" lon="0.13795">
        <ele>668.7</ele>
        <time>2015-09-22T11:51:13Z</time>
      </trkpt>
      <trkpt lat="42.32636" lon="0.13794">
        <ele>669.1</ele>
        <time>2015-09-22T11:51:14Z</time>
      </trkpt>
      <trkpt lat="42.32639" lon="0.13792">
        <ele>669.4</ele>
        <time>2015-09-22T11:51:15Z</time>
      </trkpt>
      <trkpt lat="42.32642" lon="0.13791">
        <ele>669.5</ele>
        <time>2015-09-22T11:51:16Z</time>
      </trkpt>
      <trkpt lat="42.32645" lon="0.13794">
        <ele>669.4</ele>
        <time>2015-09-22T11:51:17Z</time>
      </trkpt>
      <trkpt lat="42.32647" lon="0.13795">
        <ele>669.3</ele>
        <time>2015-09-22T11:51:18Z</time>
      </trkpt>
      <trkpt lat="42.3265" lon="0.13797">
        <ele>669.3</ele>
        <time>2015-09-22T11:51:19Z</time>
      </trkpt>
      <trkpt lat="42.32655" lon="0.13799">
        <ele>669.2</ele>
        <time>2015-09-22T11:51:21Z</time>
      </trkpt>
      <trkpt lat="42.32658" lon="0.13801">
        <ele>669.1</ele>
        <time>2015-09-22T11:51:23Z</time>
      </trkpt>
      <trkpt lat="42.32662" lon="0.13804">
        <ele>669</ele>
        <time>2015-09-22T11:51:25Z</time>
      </trkpt>
      <trkpt lat="42.32666" lon="0.13807">
        <ele>668.9</ele>
        <time>2015-09-22T11:51:27Z</time>
      </trkpt>
      <trkpt lat="42.32671" lon="0.13809">
        <ele>669</ele>
        <time>2015-09-22T11:51:29Z</time>
      </trkpt>
      <trkpt lat="42.32676" lon="0.13809">
        <ele>669.2</ele>
        <time>2015-09-22T11:51:31Z</time>
      </trkpt>
      <trkpt lat="42.32682" lon="0.13811">
        <ele>669.4</ele>
        <time>2015-09-22T11:51:33Z</time>
      </trkpt>
      <trkpt lat="42.32685" lon="0.13812">
        <ele>669.6</ele>
        <time>2015-09-22T11:51:34Z</time>
      </trkpt>
      <trkpt lat="42.32688" lon="0.13812">
        <ele>669.7</ele>
        <time>2015-09-22T11:51:35Z</time>
      </trkpt>
      <trkpt lat="42.32692" lon="0.13813">
        <ele>669.9</ele>
        <time>2015-09-22T11:51:36Z</time>
      </trkpt>
      <trkpt lat="42.32695" lon="0.13813">
        <ele>670.1</ele>
        <time>2015-09-22T11:51:37Z</time>
      </trkpt>
      <trkpt lat="42.32698" lon="0.13813">
        <ele>670.3</ele>
        <time>2015-09-22T11:51:38Z</time>
      </trkpt>
      <trkpt lat="42.32701" lon="0.13813">
        <ele>670.5</ele>
        <time>2015-09-22T11:51:39Z</time>
      </trkpt>
      <trkpt lat="42.32704" lon="0.13813">
        <ele>670.6</ele>
        <time>2015-09-22T11:51:40Z</time>
      </trkpt>
      <trkpt lat="42.32707" lon="0.13814">
        <ele>670.8</ele>
        <time>2015-09-22T11:51:41Z</time>
      </trkpt>
      <trkpt lat="42.32709" lon="0.13815">
        <ele>670.9</ele>
        <time>2015-09-22T11:51:42Z</time>
      </trkpt>
      <trkpt lat="42.32712" lon="0.13815">
        <ele>670.8</ele>
        <time>2015-09-22T11:51:43Z</time>
      </trkpt>
      <trkpt lat="42.32715" lon="0.13817">
        <ele>670.7</ele>
        <time>2015-09-22T11:51:44Z</time>
      </trkpt>
      <trkpt lat="42.32718" lon="0.13818">
        <ele>670.7</ele>
        <time>2015-09-22T11:51:45Z</time>
      </trkpt>
      <trkpt lat="42.32721" lon="0.13819">
        <ele>670.6</ele>
        <time>2015-09-22T11:51:46Z</time>
      </trkpt>
      <trkpt lat="42.32724" lon="0.1382">
        <ele>670.6</ele>
        <time>2015-09-22T11:51:47Z</time>
      </trkpt>
      <trkpt lat="42.32727" lon="0.13822">
        <ele>670.6</ele>
        <time>2015-09-22T11:51:48Z</time>
      </trkpt>
      <trkpt lat="42.3273" lon="0.13823">
        <ele>670.6</ele>
        <time>2015-09-22T11:51:49Z</time>
      </trkpt>
      <trkpt lat="42.32732" lon="0.13825">
        <ele>670.6</ele>
        <time>2015-09-22T11:51:50Z</time>
      </trkpt>
      <trkpt lat="42.32735" lon="0.13826">
        <ele>670.6</ele>
        <time>2015-09-22T11:51:51Z</time>
      </trkpt>
      <trkpt lat="42.32738" lon="0.13828">
        <ele>670.6</ele>
        <time>2015-09-22T11:51:52Z</time>
      </trkpt>
      <trkpt lat="42.32741" lon="0.13829">
        <ele>670.7</ele>
        <time>2015-09-22T11:51:53Z</time>
      </trkpt>
      <trkpt lat="42.32744" lon="0.1383">
        <ele>670.8</ele>
        <time>2015-09-22T11:51:54Z</time>
      </trkpt>
      <trkpt lat="42.32747" lon="0.13831">
        <ele>670.9</ele>
        <time>2015-09-22T11:51:55Z</time>
      </trkpt>
      <trkpt lat="42.3275" lon="0.13832">
        <ele>671</ele>
        <time>2015-09-22T11:51:56Z</time>
      </trkpt>
      <trkpt lat="42.32752" lon="0.13834">
        <ele>671.1</ele>
        <time>2015-09-22T11:51:57Z</time>
      </trkpt>
      <trkpt lat="42.32755" lon="0.13835">
        <ele>671.2</ele>
        <time>2015-09-22T11:51:58Z</time>
      </trkpt>
      <trkpt lat="42.32757" lon="0.13837">
        <ele>671.4</ele>
        <time>2015-09-22T11:51:59Z</time>
      </trkpt>
      <trkpt lat="42.32761" lon="0.13841">
        <ele>671.7</ele>
        <time>2015-09-22T11:52:01Z</time>
      </trkpt>
      <trkpt lat="42.32764" lon="0.13843">
        <ele>672</ele>
        <time>2015-09-22T11:52:03Z</time>
      </trkpt>
      <trkpt lat="42.32768" lon="0.13844">
        <ele>672.2</ele>
        <time>2015-09-22T11:52:05Z</time>
      </trkpt>
      <trkpt lat="42.32771" lon="0.13846">
        <ele>672.5</ele>
        <time>2015-09-22T11:52:07Z</time>
      </trkpt>
      <trkpt lat="42.32775" lon="0.13847">
        <ele>672.8</ele>
        <time>2015-09-22T11:52:09Z</time>
      </trkpt>
      <trkpt lat="42.3278" lon="0.13849">
        <ele>673.2</ele>
        <time>2015-09-22T11:52:11Z</time>
      </trkpt>
      <trkpt lat="42.32785" lon="0.13852">
        <ele>673.8</ele>
        <time>2015-09-22T11:52:13Z</time>
      </trkpt>
      <trkpt lat="42.3279" lon="0.13854">
        <ele>674.4</ele>
        <time>2015-09-22T11:52:15Z</time>
      </trkpt>
      <trkpt lat="42.32795" lon="0.13856">
        <ele>674.9</ele>
        <time>2015-09-22T11:52:17Z</time>
      </trkpt>
      <trkpt lat="42.32799" lon="0.13858">
        <ele>675.6</ele>
        <time>2015-09-22T11:52:19Z</time>
      </trkpt>
      <trkpt lat="42.32804" lon="0.1386">
        <ele>676.4</ele>
        <time>2015-09-22T11:52:21Z</time>
      </trkpt>
      <trkpt lat="42.32809" lon="0.13863">
        <ele>677.3</ele>
        <time>2015-09-22T11:52:23Z</time>
      </trkpt>
      <trkpt lat="42.32814" lon="0.13866">
        <ele>678.2</ele>
        <time>2015-09-22T11:52:25Z</time>
      </trkpt>
      <trkpt lat="42.32817" lon="0.13869">
        <ele>679.1</ele>
        <time>2015-09-22T11:52:27Z</time>
      </trkpt>
      <trkpt lat="42.32818" lon="0.13874">
        <ele>680</ele>
        <time>2015-09-22T11:52:29Z</time>
      </trkpt>
      <trkpt lat="42.32819" lon="0.13879">
        <ele>680.2</ele>
        <time>2015-09-22T11:52:31Z</time>
      </trkpt>
      <trkpt lat="42.3282" lon="0.13883">
        <ele>680.3</ele>
        <time>2015-09-22T11:52:34Z</time>
      </trkpt>
      <trkpt lat="42.3282" lon="0.13887">
        <ele>680.2</ele>
        <time>2015-09-22T11:52:44Z</time>
      </trkpt>
      <trkpt lat="42.32822" lon="0.1389">
        <ele>680.5</ele>
        <time>2015-09-22T11:52:53Z</time>
      </trkpt>
      <trkpt lat="42.32824" lon="0.13893">
        <ele>680.7</ele>
        <time>2015-09-22T11:52:57Z</time>
      </trkpt>
      <trkpt lat="42.32827" lon="0.13894">
        <ele>681</ele>
        <time>2015-09-22T11:53:01Z</time>
      </trkpt>
      <trkpt lat="42.32829" lon="0.13897">
        <ele>681.3</ele>
        <time>2015-09-22T11:53:05Z</time>
      </trkpt>
      <trkpt lat="42.32831" lon="0.139">
        <ele>681.5</ele>
        <time>2015-09-22T11:53:10Z</time>
      </trkpt>
      <trkpt lat="42.32833" lon="0.13902">
        <ele>681.8</ele>
        <time>2015-09-22T11:53:14Z</time>
      </trkpt>
      <trkpt lat="42.32836" lon="0.13904">
        <ele>682.2</ele>
        <time>2015-09-22T11:53:18Z</time>
      </trkpt>
      <trkpt lat="42.32839" lon="0.13904">
        <ele>682.6</ele>
        <time>2015-09-22T11:53:22Z</time>
      </trkpt>
      <trkpt lat="42.32843" lon="0.13906">
        <ele>683.1</ele>
        <time>2015-09-22T11:53:30Z</time>
      </trkpt>
      <trkpt lat="42.32848" lon="0.13906">
        <ele>683.7</ele>
        <time>2015-09-22T11:53:32Z</time>
      </trkpt>
      <trkpt lat="42.32853" lon="0.13907">
        <ele>684.4</ele>
        <time>2015-09-22T11:53:34Z</time>
      </trkpt>
      <trkpt lat="42.32858" lon="0.13909">
        <ele>685.1</ele>
        <time>2015-09-22T11:53:36Z</time>
      </trkpt>
      <trkpt lat="42.3286" lon="0.13909">
        <ele>685.4</ele>
        <time>2015-09-22T11:53:37Z</time>
      </trkpt>
      <trkpt lat="42.32866" lon="0.1391">
        <ele>686.2</ele>
        <time>2015-09-22T11:53:39Z</time>
      </trkpt>
      <trkpt lat="42.32869" lon="0.1391">
        <ele>686.6</ele>
        <time>2015-09-22T11:53:40Z</time>
      </trkpt>
      <trkpt lat="42.32872" lon="0.1391">
        <ele>687</ele>
        <time>2015-09-22T11:53:41Z</time>
      </trkpt>
      <trkpt lat="42.32877" lon="0.1391">
        <ele>687.4</ele>
        <time>2015-09-22T11:53:43Z</time>
      </trkpt>
      <trkpt lat="42.32882" lon="0.13911">
        <ele>687.5</ele>
        <time>2015-09-22T11:53:45Z</time>
      </trkpt>
      <trkpt lat="42.32887" lon="0.13913">
        <ele>687.6</ele>
        <time>2015-09-22T11:53:47Z</time>
      </trkpt>
      <trkpt lat="42.32892" lon="0.13915">
        <ele>687.8</ele>
        <time>2015-09-22T11:53:49Z</time>
      </trkpt>
      <trkpt lat="42.32897" lon="0.13918">
        <ele>687.9</ele>
        <time>2015-09-22T11:53:51Z</time>
      </trkpt>
      <trkpt lat="42.32902" lon="0.1392">
        <ele>688.1</ele>
        <time>2015-09-22T11:53:53Z</time>
      </trkpt>
      <trkpt lat="42.32907" lon="0.13921">
        <ele>688.3</ele>
        <time>2015-09-22T11:53:55Z</time>
      </trkpt>
      <trkpt lat="42.32911" lon="0.13924">
        <ele>688.5</ele>
        <time>2015-09-22T11:53:57Z</time>
      </trkpt>
      <trkpt lat="42.32914" lon="0.13927">
        <ele>688.8</ele>
        <time>2015-09-22T11:53:59Z</time>
      </trkpt>
      <trkpt lat="42.32917" lon="0.1393">
        <ele>689</ele>
        <time>2015-09-22T11:54:01Z</time>
      </trkpt>
      <trkpt lat="42.32921" lon="0.13933">
        <ele>689.3</ele>
        <time>2015-09-22T11:54:03Z</time>
      </trkpt>
      <trkpt lat="42.32923" lon="0.13936">
        <ele>689.5</ele>
        <time>2015-09-22T11:54:04Z</time>
      </trkpt>
      <trkpt lat="42.32925" lon="0.13939">
        <ele>689.8</ele>
        <time>2015-09-22T11:54:05Z</time>
      </trkpt>
      <trkpt lat="42.32928" lon="0.13941">
        <ele>690</ele>
        <time>2015-09-22T11:54:06Z</time>
      </trkpt>
      <trkpt lat="42.3293" lon="0.13943">
        <ele>690.3</ele>
        <time>2015-09-22T11:54:07Z</time>
      </trkpt>
      <trkpt lat="42.32933" lon="0.13945">
        <ele>690.5</ele>
        <time>2015-09-22T11:54:08Z</time>
      </trkpt>
      <trkpt lat="42.32935" lon="0.13946">
        <ele>690.7</ele>
        <time>2015-09-22T11:54:09Z</time>
      </trkpt>
      <trkpt lat="42.32938" lon="0.13948">
        <ele>691</ele>
        <time>2015-09-22T11:54:10Z</time>
      </trkpt>
      <trkpt lat="42.32941" lon="0.1395">
        <ele>691.3</ele>
        <time>2015-09-22T11:54:11Z</time>
      </trkpt>
      <trkpt lat="42.32943" lon="0.13951">
        <ele>691.5</ele>
        <time>2015-09-22T11:54:12Z</time>
      </trkpt>
      <trkpt lat="42.32946" lon="0.13953">
        <ele>691.8</ele>
        <time>2015-09-22T11:54:13Z</time>
      </trkpt>
      <trkpt lat="42.32948" lon="0.13955">
        <ele>692.1</ele>
        <time>2015-09-22T11:54:14Z</time>
      </trkpt>
      <trkpt lat="42.32951" lon="0.13957">
        <ele>692.4</ele>
        <time>2015-09-22T11:54:15Z</time>
      </trkpt>
      <trkpt lat="42.32953" lon="0.13959">
        <ele>692.6</ele>
        <time>2015-09-22T11:54:16Z</time>
      </trkpt>
      <trkpt lat="42.32956" lon="0.13961">
        <ele>692.7</ele>
        <time>2015-09-22T11:54:17Z</time>
      </trkpt>
      <trkpt lat="42.32958" lon="0.13963">
        <ele>692.7</ele>
        <time>2015-09-22T11:54:18Z</time>
      </trkpt>
      <trkpt lat="42.32961" lon="0.13964">
        <ele>692.7</ele>
        <time>2015-09-22T11:54:19Z</time>
      </trkpt>
      <trkpt lat="42.32964" lon="0.13964">
        <ele>692.6</ele>
        <time>2015-09-22T11:54:20Z</time>
      </trkpt>
      <trkpt lat="42.32967" lon="0.13964">
        <ele>692.6</ele>
        <time>2015-09-22T11:54:21Z</time>
      </trkpt>
      <trkpt lat="42.32971" lon="0.13965">
        <ele>692.5</ele>
        <time>2015-09-22T11:54:22Z</time>
      </trkpt>
      <trkpt lat="42.32975" lon="0.13966">
        <ele>692.5</ele>
        <time>2015-09-22T11:54:23Z</time>
      </trkpt>
      <trkpt lat="42.32978" lon="0.13967">
        <ele>692.4</ele>
        <time>2015-09-22T11:54:24Z</time>
      </trkpt>
      <trkpt lat="42.32982" lon="0.13968">
        <ele>692.4</ele>
        <time>2015-09-22T11:54:25Z</time>
      </trkpt>
      <trkpt lat="42.32985" lon="0.13969">
        <ele>692.3</ele>
        <time>2015-09-22T11:54:26Z</time>
      </trkpt>
      <trkpt lat="42.32989" lon="0.1397">
        <ele>692.3</ele>
        <time>2015-09-22T11:54:27Z</time>
      </trkpt>
      <trkpt lat="42.32992" lon="0.13971">
        <ele>692.3</ele>
        <time>2015-09-22T11:54:28Z</time>
      </trkpt>
      <trkpt lat="42.32996" lon="0.13971">
        <ele>692.3</ele>
        <time>2015-09-22T11:54:29Z</time>
      </trkpt>
      <trkpt lat="42.32999" lon="0.13972">
        <ele>692.3</ele>
        <time>2015-09-22T11:54:30Z</time>
      </trkpt>
      <trkpt lat="42.33002" lon="0.13973">
        <ele>692.2</ele>
        <time>2015-09-22T11:54:31Z</time>
      </trkpt>
      <trkpt lat="42.33004" lon="0.13974">
        <ele>692.2</ele>
        <time>2015-09-22T11:54:32Z</time>
      </trkpt>
      <trkpt lat="42.33007" lon="0.13975">
        <ele>692.2</ele>
        <time>2015-09-22T11:54:33Z</time>
      </trkpt>
      <trkpt lat="42.33012" lon="0.13977">
        <ele>692.2</ele>
        <time>2015-09-22T11:54:35Z</time>
      </trkpt>
      <trkpt lat="42.33015" lon="0.1398">
        <ele>692.3</ele>
        <time>2015-09-22T11:54:37Z</time>
      </trkpt>
      <trkpt lat="42.33019" lon="0.13983">
        <ele>692.3</ele>
        <time>2015-09-22T11:54:39Z</time>
      </trkpt>
      <trkpt lat="42.33022" lon="0.13984">
        <ele>692.3</ele>
        <time>2015-09-22T11:54:40Z</time>
      </trkpt>
      <trkpt lat="42.33025" lon="0.13985">
        <ele>692.4</ele>
        <time>2015-09-22T11:54:41Z</time>
      </trkpt>
      <trkpt lat="42.33028" lon="0.13987">
        <ele>692.4</ele>
        <time>2015-09-22T11:54:42Z</time>
      </trkpt>
      <trkpt lat="42.3303" lon="0.13989">
        <ele>692.5</ele>
        <time>2015-09-22T11:54:43Z</time>
      </trkpt>
      <trkpt lat="42.33033" lon="0.13991">
        <ele>692.6</ele>
        <time>2015-09-22T11:54:44Z</time>
      </trkpt>
      <trkpt lat="42.33035" lon="0.13993">
        <ele>692.7</ele>
        <time>2015-09-22T11:54:45Z</time>
      </trkpt>
      <trkpt lat="42.33039" lon="0.13997">
        <ele>692.9</ele>
        <time>2015-09-22T11:54:47Z</time>
      </trkpt>
      <trkpt lat="42.33041" lon="0.13999">
        <ele>693</ele>
        <time>2015-09-22T11:54:48Z</time>
      </trkpt>
      <trkpt lat="42.33043" lon="0.14002">
        <ele>692.8</ele>
        <time>2015-09-22T11:54:49Z</time>
      </trkpt>
      <trkpt lat="42.33045" lon="0.14005">
        <ele>692.7</ele>
        <time>2015-09-22T11:54:50Z</time>
      </trkpt>
      <trkpt lat="42.33047" lon="0.14008">
        <ele>692.6</ele>
        <time>2015-09-22T11:54:51Z</time>
      </trkpt>
      <trkpt lat="42.33049" lon="0.14011">
        <ele>692.5</ele>
        <time>2015-09-22T11:54:52Z</time>
      </trkpt>
      <trkpt lat="42.33051" lon="0.14014">
        <ele>692.4</ele>
        <time>2015-09-22T11:54:53Z</time>
      </trkpt>
      <trkpt lat="42.33053" lon="0.14017">
        <ele>692.3</ele>
        <time>2015-09-22T11:54:54Z</time>
      </trkpt>
      <trkpt lat="42.33054" lon="0.14021">
        <ele>692.3</ele>
        <time>2015-09-22T11:54:55Z</time>
      </trkpt>
      <trkpt lat="42.33056" lon="0.14024">
        <ele>692.4</ele>
        <time>2015-09-22T11:54:56Z</time>
      </trkpt>
      <trkpt lat="42.33057" lon="0.14027">
        <ele>692.5</ele>
        <time>2015-09-22T11:54:57Z</time>
      </trkpt>
      <trkpt lat="42.33059" lon="0.14034">
        <ele>692.7</ele>
        <time>2015-09-22T11:54:59Z</time>
      </trkpt>
      <trkpt lat="42.3306" lon="0.14037">
        <ele>692.8</ele>
        <time>2015-09-22T11:55:00Z</time>
      </trkpt>
      <trkpt lat="42.33062" lon="0.14041">
        <ele>693</ele>
        <time>2015-09-22T11:55:01Z</time>
      </trkpt>
      <trkpt lat="42.33063" lon="0.14045">
        <ele>693</ele>
        <time>2015-09-22T11:55:02Z</time>
      </trkpt>
      <trkpt lat="42.33064" lon="0.14049">
        <ele>693</ele>
        <time>2015-09-22T11:55:03Z</time>
      </trkpt>
      <trkpt lat="42.33066" lon="0.14052">
        <ele>692.9</ele>
        <time>2015-09-22T11:55:04Z</time>
      </trkpt>
      <trkpt lat="42.33068" lon="0.14055">
        <ele>692.9</ele>
        <time>2015-09-22T11:55:05Z</time>
      </trkpt>
      <trkpt lat="42.33069" lon="0.14058">
        <ele>692.9</ele>
        <time>2015-09-22T11:55:06Z</time>
      </trkpt>
      <trkpt lat="42.33071" lon="0.14061">
        <ele>693</ele>
        <time>2015-09-22T11:55:07Z</time>
      </trkpt>
      <trkpt lat="42.33073" lon="0.14067">
        <ele>693.1</ele>
        <time>2015-09-22T11:55:09Z</time>
      </trkpt>
      <trkpt lat="42.33076" lon="0.14071">
        <ele>693.2</ele>
        <time>2015-09-22T11:55:11Z</time>
      </trkpt>
      <trkpt lat="42.33078" lon="0.14077">
        <ele>693.4</ele>
        <time>2015-09-22T11:55:13Z</time>
      </trkpt>
      <trkpt lat="42.33081" lon="0.14083">
        <ele>693.7</ele>
        <time>2015-09-22T11:55:15Z</time>
      </trkpt>
      <trkpt lat="42.33084" lon="0.14089">
        <ele>694</ele>
        <time>2015-09-22T11:55:17Z</time>
      </trkpt>
      <trkpt lat="42.33085" lon="0.14092">
        <ele>694.2</ele>
        <time>2015-09-22T11:55:18Z</time>
      </trkpt>
      <trkpt lat="42.33086" lon="0.14096">
        <ele>694.4</ele>
        <time>2015-09-22T11:55:19Z</time>
      </trkpt>
      <trkpt lat="42.33087" lon="0.141">
        <ele>694.7</ele>
        <time>2015-09-22T11:55:20Z</time>
      </trkpt>
      <trkpt lat="42.33088" lon="0.14103">
        <ele>694.9</ele>
        <time>2015-09-22T11:55:21Z</time>
      </trkpt>
      <trkpt lat="42.33091" lon="0.14109">
        <ele>695.5</ele>
        <time>2015-09-22T11:55:23Z</time>
      </trkpt>
      <trkpt lat="42.33095" lon="0.14114">
        <ele>696</ele>
        <time>2015-09-22T11:55:25Z</time>
      </trkpt>
      <trkpt lat="42.33098" lon="0.14119">
        <ele>696.7</ele>
        <time>2015-09-22T11:55:27Z</time>
      </trkpt>
      <trkpt lat="42.33102" lon="0.14123">
        <ele>697.4</ele>
        <time>2015-09-22T11:55:29Z</time>
      </trkpt>
      <trkpt lat="42.33106" lon="0.14128">
        <ele>697.8</ele>
        <time>2015-09-22T11:55:31Z</time>
      </trkpt>
      <trkpt lat="42.3311" lon="0.14131">
        <ele>698.2</ele>
        <time>2015-09-22T11:55:33Z</time>
      </trkpt>
      <trkpt lat="42.33114" lon="0.14134">
        <ele>698.5</ele>
        <time>2015-09-22T11:55:34Z</time>
      </trkpt>
      <trkpt lat="42.33117" lon="0.14138">
        <ele>698.8</ele>
        <time>2015-09-22T11:55:35Z</time>
      </trkpt>
      <trkpt lat="42.3312" lon="0.14142">
        <ele>699.1</ele>
        <time>2015-09-22T11:55:36Z</time>
      </trkpt>
      <trkpt lat="42.33123" lon="0.14146">
        <ele>699.3</ele>
        <time>2015-09-22T11:55:37Z</time>
      </trkpt>
      <trkpt lat="42.33127" lon="0.14154">
        <ele>699.3</ele>
        <time>2015-09-22T11:55:38Z</time>
      </trkpt>
      <trkpt lat="42.33129" lon="0.1416">
        <ele>699.1</ele>
        <time>2015-09-22T11:55:39Z</time>
      </trkpt>
      <trkpt lat="42.33131" lon="0.14165">
        <ele>699</ele>
        <time>2015-09-22T11:55:40Z</time>
      </trkpt>
      <trkpt lat="42.33132" lon="0.1417">
        <ele>698.9</ele>
        <time>2015-09-22T11:55:41Z</time>
      </trkpt>
      <trkpt lat="42.33133" lon="0.14175">
        <ele>698.8</ele>
        <time>2015-09-22T11:55:42Z</time>
      </trkpt>
      <trkpt lat="42.33134" lon="0.14179">
        <ele>698.8</ele>
        <time>2015-09-22T11:55:43Z</time>
      </trkpt>
      <trkpt lat="42.33136" lon="0.14186">
        <ele>698.8</ele>
        <time>2015-09-22T11:55:45Z</time>
      </trkpt>
      <trkpt lat="42.33137" lon="0.1419">
        <ele>698.8</ele>
        <time>2015-09-22T11:55:46Z</time>
      </trkpt>
      <trkpt lat="42.33138" lon="0.14194">
        <ele>698.8</ele>
        <time>2015-09-22T11:55:47Z</time>
      </trkpt>
      <trkpt lat="42.33139" lon="0.14199">
        <ele>698.8</ele>
        <time>2015-09-22T11:55:48Z</time>
      </trkpt>
      <trkpt lat="42.3314" lon="0.14203">
        <ele>698.9</ele>
        <time>2015-09-22T11:55:49Z</time>
      </trkpt>
      <trkpt lat="42.33141" lon="0.14207">
        <ele>699</ele>
        <time>2015-09-22T11:55:50Z</time>
      </trkpt>
      <trkpt lat="42.33143" lon="0.14211">
        <ele>699.1</ele>
        <time>2015-09-22T11:55:51Z</time>
      </trkpt>
      <trkpt lat="42.33144" lon="0.14215">
        <ele>699.1</ele>
        <time>2015-09-22T11:55:52Z</time>
      </trkpt>
      <trkpt lat="42.33145" lon="0.14219">
        <ele>699.2</ele>
        <time>2015-09-22T11:55:53Z</time>
      </trkpt>
      <trkpt lat="42.33147" lon="0.14222">
        <ele>699.3</ele>
        <time>2015-09-22T11:55:54Z</time>
      </trkpt>
      <trkpt lat="42.33149" lon="0.14227">
        <ele>699.5</ele>
        <time>2015-09-22T11:55:56Z</time>
      </trkpt>
      <trkpt lat="42.33149" lon="0.14232">
        <ele>699.5</ele>
        <time>2015-09-22T11:55:58Z</time>
      </trkpt>
      <trkpt lat="42.33149" lon="0.14237">
        <ele>699.5</ele>
        <time>2015-09-22T11:56:00Z</time>
      </trkpt>
      <trkpt lat="42.33149" lon="0.14243">
        <ele>699.6</ele>
        <time>2015-09-22T11:56:02Z</time>
      </trkpt>
      <trkpt lat="42.33152" lon="0.14241">
        <ele>699.7</ele>
        <time>2015-09-22T11:56:14Z</time>
      </trkpt>
      <trkpt lat="42.33152" lon="0.14245">
        <ele>699.7</ele>
        <time>2015-09-22T11:56:24Z</time>
      </trkpt>
      <trkpt lat="42.33153" lon="0.14249">
        <ele>699.8</ele>
        <time>2015-09-22T11:57:39Z</time>
      </trkpt>
      <trkpt lat="42.33154" lon="0.14253">
        <ele>699.9</ele>
        <time>2015-09-22T11:57:44Z</time>
      </trkpt>
      <trkpt lat="42.33152" lon="0.14257">
        <ele>699.8</ele>
        <time>2015-09-22T11:57:48Z</time>
      </trkpt>
      <trkpt lat="42.33149" lon="0.14259">
        <ele>699.6</ele>
        <time>2015-09-22T11:57:52Z</time>
      </trkpt>
      <trkpt lat="42.3315" lon="0.14263">
        <ele>699.7</ele>
        <time>2015-09-22T11:59:20Z</time>
      </trkpt>
      <trkpt lat="42.33151" lon="0.14267">
        <ele>699.8</ele>
        <time>2015-09-22T11:59:23Z</time>
      </trkpt>
      <trkpt lat="42.33152" lon="0.14272">
        <ele>699.9</ele>
        <time>2015-09-22T11:59:26Z</time>
      </trkpt>
      <trkpt lat="42.33154" lon="0.14275">
        <ele>700</ele>
        <time>2015-09-22T11:59:28Z</time>
      </trkpt>
      <trkpt lat="42.33156" lon="0.14278">
        <ele>700.1</ele>
        <time>2015-09-22T11:59:30Z</time>
      </trkpt>
      <trkpt lat="42.33157" lon="0.14282">
        <ele>700.3</ele>
        <time>2015-09-22T11:59:32Z</time>
      </trkpt>
      <trkpt lat="42.33159" lon="0.14286">
        <ele>700.4</ele>
        <time>2015-09-22T11:59:34Z</time>
      </trkpt>
      <trkpt lat="42.3316" lon="0.14291">
        <ele>700.5</ele>
        <time>2015-09-22T11:59:36Z</time>
      </trkpt>
      <trkpt lat="42.3316" lon="0.14298">
        <ele>701.1</ele>
        <time>2015-09-22T11:59:38Z</time>
      </trkpt>
      <trkpt lat="42.33159" lon="0.14303">
        <ele>701.5</ele>
        <time>2015-09-22T11:59:39Z</time>
      </trkpt>
      <trkpt lat="42.3316" lon="0.14307">
        <ele>702</ele>
        <time>2015-09-22T11:59:40Z</time>
      </trkpt>
      <trkpt lat="42.3316" lon="0.14312">
        <ele>702.4</ele>
        <time>2015-09-22T11:59:41Z</time>
      </trkpt>
      <trkpt lat="42.3316" lon="0.14316">
        <ele>702.8</ele>
        <time>2015-09-22T11:59:42Z</time>
      </trkpt>
      <trkpt lat="42.33161" lon="0.1432">
        <ele>703.3</ele>
        <time>2015-09-22T11:59:43Z</time>
      </trkpt>
      <trkpt lat="42.33162" lon="0.14325">
        <ele>703.8</ele>
        <time>2015-09-22T11:59:44Z</time>
      </trkpt>
      <trkpt lat="42.33162" lon="0.14329">
        <ele>704.2</ele>
        <time>2015-09-22T11:59:45Z</time>
      </trkpt>
      <trkpt lat="42.33163" lon="0.14333">
        <ele>704.7</ele>
        <time>2015-09-22T11:59:46Z</time>
      </trkpt>
      <trkpt lat="42.33163" lon="0.14337">
        <ele>705.1</ele>
        <time>2015-09-22T11:59:47Z</time>
      </trkpt>
      <trkpt lat="42.33164" lon="0.14341">
        <ele>705.6</ele>
        <time>2015-09-22T11:59:48Z</time>
      </trkpt>
      <trkpt lat="42.33164" lon="0.14346">
        <ele>706</ele>
        <time>2015-09-22T11:59:49Z</time>
      </trkpt>
      <trkpt lat="42.33164" lon="0.14349">
        <ele>706.4</ele>
        <time>2015-09-22T11:59:50Z</time>
      </trkpt>
      <trkpt lat="42.33164" lon="0.14353">
        <ele>706.7</ele>
        <time>2015-09-22T11:59:51Z</time>
      </trkpt>
      <trkpt lat="42.33164" lon="0.14359">
        <ele>707.3</ele>
        <time>2015-09-22T11:59:53Z</time>
      </trkpt>
      <trkpt lat="42.33165" lon="0.14366">
        <ele>708</ele>
        <time>2015-09-22T11:59:55Z</time>
      </trkpt>
      <trkpt lat="42.33164" lon="0.1437">
        <ele>708.3</ele>
        <time>2015-09-22T11:59:56Z</time>
      </trkpt>
      <trkpt lat="42.33164" lon="0.14374">
        <ele>708.7</ele>
        <time>2015-09-22T11:59:57Z</time>
      </trkpt>
      <trkpt lat="42.33165" lon="0.1438">
        <ele>709</ele>
        <time>2015-09-22T11:59:59Z</time>
      </trkpt>
      <trkpt lat="42.33165" lon="0.14387">
        <ele>709.2</ele>
        <time>2015-09-22T12:00:01Z</time>
      </trkpt>
      <trkpt lat="42.33165" lon="0.14391">
        <ele>709.3</ele>
        <time>2015-09-22T12:00:02Z</time>
      </trkpt>
      <trkpt lat="42.33165" lon="0.14397">
        <ele>709.4</ele>
        <time>2015-09-22T12:00:03Z</time>
      </trkpt>
      <trkpt lat="42.33166" lon="0.14402">
        <ele>709.6</ele>
        <time>2015-09-22T12:00:04Z</time>
      </trkpt>
      <trkpt lat="42.33166" lon="0.14407">
        <ele>709.7</ele>
        <time>2015-09-22T12:00:05Z</time>
      </trkpt>
      <trkpt lat="42.33167" lon="0.14411">
        <ele>709.9</ele>
        <time>2015-09-22T12:00:06Z</time>
      </trkpt>
      <trkpt lat="42.33167" lon="0.14416">
        <ele>710</ele>
        <time>2015-09-22T12:00:07Z</time>
      </trkpt>
      <trkpt lat="42.33168" lon="0.1442">
        <ele>710.2</ele>
        <time>2015-09-22T12:00:08Z</time>
      </trkpt>
      <trkpt lat="42.33168" lon="0.14424">
        <ele>710.3</ele>
        <time>2015-09-22T12:00:09Z</time>
      </trkpt>
      <trkpt lat="42.33169" lon="0.14428">
        <ele>710.4</ele>
        <time>2015-09-22T12:00:10Z</time>
      </trkpt>
      <trkpt lat="42.3317" lon="0.14431">
        <ele>710.6</ele>
        <time>2015-09-22T12:00:11Z</time>
      </trkpt>
      <trkpt lat="42.3317" lon="0.14438">
        <ele>710.7</ele>
        <time>2015-09-22T12:00:13Z</time>
      </trkpt>
      <trkpt lat="42.33171" lon="0.14444">
        <ele>710.9</ele>
        <time>2015-09-22T12:00:15Z</time>
      </trkpt>
      <trkpt lat="42.33171" lon="0.1445">
        <ele>711.1</ele>
        <time>2015-09-22T12:00:17Z</time>
      </trkpt>
      <trkpt lat="42.33172" lon="0.14456">
        <ele>711.3</ele>
        <time>2015-09-22T12:00:19Z</time>
      </trkpt>
      <trkpt lat="42.33173" lon="0.14463">
        <ele>711.6</ele>
        <time>2015-09-22T12:00:21Z</time>
      </trkpt>
      <trkpt lat="42.33173" lon="0.14467">
        <ele>711.7</ele>
        <time>2015-09-22T12:00:22Z</time>
      </trkpt>
      <trkpt lat="42.33173" lon="0.1447">
        <ele>711.8</ele>
        <time>2015-09-22T12:00:23Z</time>
      </trkpt>
      <trkpt lat="42.33173" lon="0.14477">
        <ele>711.9</ele>
        <time>2015-09-22T12:00:25Z</time>
      </trkpt>
      <trkpt lat="42.33174" lon="0.14481">
        <ele>712.1</ele>
        <time>2015-09-22T12:00:27Z</time>
      </trkpt>
      <trkpt lat="42.33173" lon="0.14486">
        <ele>712.2</ele>
        <time>2015-09-22T12:00:29Z</time>
      </trkpt>
      <trkpt lat="42.33174" lon="0.1449">
        <ele>712.3</ele>
        <time>2015-09-22T12:00:31Z</time>
      </trkpt>
      <trkpt lat="42.33175" lon="0.14494">
        <ele>712.6</ele>
        <time>2015-09-22T12:00:33Z</time>
      </trkpt>
      <trkpt lat="42.33176" lon="0.14498">
        <ele>712.8</ele>
        <time>2015-09-22T12:00:35Z</time>
      </trkpt>
      <trkpt lat="42.33176" lon="0.14502">
        <ele>712.8</ele>
        <time>2015-09-22T12:00:37Z</time>
      </trkpt>
      <trkpt lat="42.33175" lon="0.14507">
        <ele>712.9</ele>
        <time>2015-09-22T12:00:40Z</time>
      </trkpt>
      <trkpt lat="42.33175" lon="0.14512">
        <ele>713</ele>
        <time>2015-09-22T12:00:42Z</time>
      </trkpt>
      <trkpt lat="42.33174" lon="0.14516">
        <ele>713</ele>
        <time>2015-09-22T12:00:44Z</time>
      </trkpt>
      <trkpt lat="42.33174" lon="0.1452">
        <ele>713.1</ele>
        <time>2015-09-22T12:00:46Z</time>
      </trkpt>
      <trkpt lat="42.33175" lon="0.14525">
        <ele>713.3</ele>
        <time>2015-09-22T12:00:48Z</time>
      </trkpt>
      <trkpt lat="42.33176" lon="0.1453">
        <ele>713.6</ele>
        <time>2015-09-22T12:00:50Z</time>
      </trkpt>
      <trkpt lat="42.33176" lon="0.14535">
        <ele>713.8</ele>
        <time>2015-09-22T12:00:52Z</time>
      </trkpt>
      <trkpt lat="42.33177" lon="0.14541">
        <ele>714.1</ele>
        <time>2015-09-22T12:00:54Z</time>
      </trkpt>
      <trkpt lat="42.33177" lon="0.14546">
        <ele>714.3</ele>
        <time>2015-09-22T12:00:56Z</time>
      </trkpt>
      <trkpt lat="42.33177" lon="0.1455">
        <ele>714.4</ele>
        <time>2015-09-22T12:00:58Z</time>
      </trkpt>
      <trkpt lat="42.33178" lon="0.14555">
        <ele>714.7</ele>
        <time>2015-09-22T12:01:00Z</time>
      </trkpt>
      <trkpt lat="42.33179" lon="0.14559">
        <ele>715</ele>
        <time>2015-09-22T12:01:02Z</time>
      </trkpt>
      <trkpt lat="42.3318" lon="0.14563">
        <ele>715.3</ele>
        <time>2015-09-22T12:01:04Z</time>
      </trkpt>
      <trkpt lat="42.33182" lon="0.14568">
        <ele>715.7</ele>
        <time>2015-09-22T12:01:06Z</time>
      </trkpt>
      <trkpt lat="42.33183" lon="0.14573">
        <ele>716</ele>
        <time>2015-09-22T12:01:08Z</time>
      </trkpt>
      <trkpt lat="42.33184" lon="0.14578">
        <ele>716.4</ele>
        <time>2015-09-22T12:01:10Z</time>
      </trkpt>
      <trkpt lat="42.33186" lon="0.14582">
        <ele>716.7</ele>
        <time>2015-09-22T12:01:12Z</time>
      </trkpt>
      <trkpt lat="42.33187" lon="0.14586">
        <ele>717</ele>
        <time>2015-09-22T12:01:14Z</time>
      </trkpt>
      <trkpt lat="42.33189" lon="0.1459">
        <ele>717.4</ele>
        <time>2015-09-22T12:01:16Z</time>
      </trkpt>
      <trkpt lat="42.3319" lon="0.14594">
        <ele>717.7</ele>
        <time>2015-09-22T12:01:18Z</time>
      </trkpt>
      <trkpt lat="42.33192" lon="0.14598">
        <ele>718</ele>
        <time>2015-09-22T12:01:20Z</time>
      </trkpt>
      <trkpt lat="42.33193" lon="0.14604">
        <ele>718.4</ele>
        <time>2015-09-22T12:01:22Z</time>
      </trkpt>
      <trkpt lat="42.33194" lon="0.14607">
        <ele>718.7</ele>
        <time>2015-09-22T12:01:23Z</time>
      </trkpt>
      <trkpt lat="42.33197" lon="0.14613">
        <ele>719.2</ele>
        <time>2015-09-22T12:01:25Z</time>
      </trkpt>
      <trkpt lat="42.332" lon="0.14618">
        <ele>719.6</ele>
        <time>2015-09-22T12:01:27Z</time>
      </trkpt>
      <trkpt lat="42.33201" lon="0.14623">
        <ele>720</ele>
        <time>2015-09-22T12:01:29Z</time>
      </trkpt>
      <trkpt lat="42.33201" lon="0.14628">
        <ele>720.1</ele>
        <time>2015-09-22T12:01:31Z</time>
      </trkpt>
      <trkpt lat="42.33202" lon="0.14634">
        <ele>720.4</ele>
        <time>2015-09-22T12:01:33Z</time>
      </trkpt>
      <trkpt lat="42.33205" lon="0.1464">
        <ele>720.9</ele>
        <time>2015-09-22T12:01:35Z</time>
      </trkpt>
      <trkpt lat="42.33208" lon="0.14644">
        <ele>721.4</ele>
        <time>2015-09-22T12:01:37Z</time>
      </trkpt>
      <trkpt lat="42.33211" lon="0.14648">
        <ele>721.8</ele>
        <time>2015-09-22T12:01:39Z</time>
      </trkpt>
      <trkpt lat="42.33213" lon="0.14652">
        <ele>722.1</ele>
        <time>2015-09-22T12:01:41Z</time>
      </trkpt>
      <trkpt lat="42.33215" lon="0.14656">
        <ele>722.4</ele>
        <time>2015-09-22T12:01:43Z</time>
      </trkpt>
      <trkpt lat="42.33216" lon="0.14659">
        <ele>722.6</ele>
        <time>2015-09-22T12:01:45Z</time>
      </trkpt>
      <trkpt lat="42.33216" lon="0.14664">
        <ele>722.7</ele>
        <time>2015-09-22T12:01:48Z</time>
      </trkpt>
      <trkpt lat="42.33218" lon="0.14668">
        <ele>723</ele>
        <time>2015-09-22T12:01:51Z</time>
      </trkpt>
      <trkpt lat="42.33218" lon="0.14673">
        <ele>723.2</ele>
        <time>2015-09-22T12:01:54Z</time>
      </trkpt>
      <trkpt lat="42.3322" lon="0.14678">
        <ele>723.5</ele>
        <time>2015-09-22T12:01:57Z</time>
      </trkpt>
      <trkpt lat="42.33221" lon="0.14683">
        <ele>723.8</ele>
        <time>2015-09-22T12:02:00Z</time>
      </trkpt>
      <trkpt lat="42.33222" lon="0.14687">
        <ele>724</ele>
        <time>2015-09-22T12:02:02Z</time>
      </trkpt>
      <trkpt lat="42.33224" lon="0.14691">
        <ele>724.2</ele>
        <time>2015-09-22T12:02:04Z</time>
      </trkpt>
      <trkpt lat="42.33227" lon="0.14695">
        <ele>724.6</ele>
        <time>2015-09-22T12:02:07Z</time>
      </trkpt>
      <trkpt lat="42.33228" lon="0.14699">
        <ele>724.8</ele>
        <time>2015-09-22T12:02:09Z</time>
      </trkpt>
      <trkpt lat="42.33229" lon="0.14703">
        <ele>725.1</ele>
        <time>2015-09-22T12:02:11Z</time>
      </trkpt>
      <trkpt lat="42.3323" lon="0.14707">
        <ele>725.3</ele>
        <time>2015-09-22T12:02:13Z</time>
      </trkpt>
      <trkpt lat="42.3323" lon="0.14711">
        <ele>725.7</ele>
        <time>2015-09-22T12:02:15Z</time>
      </trkpt>
      <trkpt lat="42.33231" lon="0.14716">
        <ele>726.2</ele>
        <time>2015-09-22T12:02:17Z</time>
      </trkpt>
      <trkpt lat="42.33233" lon="0.14721">
        <ele>726.9</ele>
        <time>2015-09-22T12:02:19Z</time>
      </trkpt>
      <trkpt lat="42.33235" lon="0.14726">
        <ele>727.5</ele>
        <time>2015-09-22T12:02:21Z</time>
      </trkpt>
      <trkpt lat="42.33237" lon="0.14729">
        <ele>728</ele>
        <time>2015-09-22T12:02:23Z</time>
      </trkpt>
      <trkpt lat="42.33236" lon="0.14734">
        <ele>728.3</ele>
        <time>2015-09-22T12:02:28Z</time>
      </trkpt>
      <trkpt lat="42.33235" lon="0.14738">
        <ele>728.6</ele>
        <time>2015-09-22T12:02:31Z</time>
      </trkpt>
      <trkpt lat="42.33235" lon="0.14743">
        <ele>729</ele>
        <time>2015-09-22T12:02:33Z</time>
      </trkpt>
      <trkpt lat="42.33234" lon="0.14747">
        <ele>729.4</ele>
        <time>2015-09-22T12:02:35Z</time>
      </trkpt>
      <trkpt lat="42.33234" lon="0.14752">
        <ele>729.9</ele>
        <time>2015-09-22T12:02:37Z</time>
      </trkpt>
      <trkpt lat="42.33234" lon="0.14757">
        <ele>730.3</ele>
        <time>2015-09-22T12:02:39Z</time>
      </trkpt>
      <trkpt lat="42.33234" lon="0.14761">
        <ele>730.7</ele>
        <time>2015-09-22T12:02:41Z</time>
      </trkpt>
      <trkpt lat="42.33233" lon="0.14766">
        <ele>731.1</ele>
        <time>2015-09-22T12:02:43Z</time>
      </trkpt>
      <trkpt lat="42.33232" lon="0.1477">
        <ele>731.4</ele>
        <time>2015-09-22T12:02:45Z</time>
      </trkpt>
      <trkpt lat="42.3323" lon="0.14775">
        <ele>731.7</ele>
        <time>2015-09-22T12:02:47Z</time>
      </trkpt>
      <trkpt lat="42.33229" lon="0.14779">
        <ele>732</ele>
        <time>2015-09-22T12:02:49Z</time>
      </trkpt>
      <trkpt lat="42.33228" lon="0.14783">
        <ele>732.3</ele>
        <time>2015-09-22T12:02:51Z</time>
      </trkpt>
      <trkpt lat="42.33227" lon="0.14787">
        <ele>732.6</ele>
        <time>2015-09-22T12:02:53Z</time>
      </trkpt>
      <trkpt lat="42.33228" lon="0.14791">
        <ele>733.1</ele>
        <time>2015-09-22T12:02:55Z</time>
      </trkpt>
      <trkpt lat="42.33229" lon="0.14795">
        <ele>733.5</ele>
        <time>2015-09-22T12:02:57Z</time>
      </trkpt>
      <trkpt lat="42.3323" lon="0.14799">
        <ele>733.9</ele>
        <time>2015-09-22T12:02:59Z</time>
      </trkpt>
      <trkpt lat="42.3323" lon="0.14803">
        <ele>734.3</ele>
        <time>2015-09-22T12:03:01Z</time>
      </trkpt>
      <trkpt lat="42.33229" lon="0.14808">
        <ele>734.6</ele>
        <time>2015-09-22T12:03:03Z</time>
      </trkpt>
      <trkpt lat="42.33229" lon="0.14812">
        <ele>734.9</ele>
        <time>2015-09-22T12:03:05Z</time>
      </trkpt>
      <trkpt lat="42.33229" lon="0.14817">
        <ele>735.3</ele>
        <time>2015-09-22T12:03:07Z</time>
      </trkpt>
      <trkpt lat="42.33229" lon="0.14822">
        <ele>735.7</ele>
        <time>2015-09-22T12:03:09Z</time>
      </trkpt>
      <trkpt lat="42.3323" lon="0.14827">
        <ele>736.1</ele>
        <time>2015-09-22T12:03:11Z</time>
      </trkpt>
      <trkpt lat="42.33231" lon="0.14832">
        <ele>736.6</ele>
        <time>2015-09-22T12:03:13Z</time>
      </trkpt>
      <trkpt lat="42.33231" lon="0.14837">
        <ele>737</ele>
        <time>2015-09-22T12:03:15Z</time>
      </trkpt>
      <trkpt lat="42.33231" lon="0.14843">
        <ele>737.5</ele>
        <time>2015-09-22T12:03:17Z</time>
      </trkpt>
      <trkpt lat="42.33233" lon="0.14849">
        <ele>738.1</ele>
        <time>2015-09-22T12:03:19Z</time>
      </trkpt>
      <trkpt lat="42.33233" lon="0.14856">
        <ele>738.7</ele>
        <time>2015-09-22T12:03:21Z</time>
      </trkpt>
      <trkpt lat="42.33233" lon="0.14862">
        <ele>739.2</ele>
        <time>2015-09-22T12:03:23Z</time>
      </trkpt>
      <trkpt lat="42.33233" lon="0.14868">
        <ele>739.7</ele>
        <time>2015-09-22T12:03:25Z</time>
      </trkpt>
      <trkpt lat="42.33233" lon="0.14874">
        <ele>740.1</ele>
        <time>2015-09-22T12:03:27Z</time>
      </trkpt>
      <trkpt lat="42.33233" lon="0.1488">
        <ele>740.3</ele>
        <time>2015-09-22T12:03:29Z</time>
      </trkpt>
      <trkpt lat="42.33234" lon="0.14886">
        <ele>740.5</ele>
        <time>2015-09-22T12:03:31Z</time>
      </trkpt>
      <trkpt lat="42.33235" lon="0.14891">
        <ele>740.7</ele>
        <time>2015-09-22T12:03:33Z</time>
      </trkpt>
      <trkpt lat="42.33236" lon="0.14897">
        <ele>740.9</ele>
        <time>2015-09-22T12:03:35Z</time>
      </trkpt>
      <trkpt lat="42.33237" lon="0.14905">
        <ele>741.1</ele>
        <time>2015-09-22T12:03:37Z</time>
      </trkpt>
      <trkpt lat="42.33238" lon="0.14909">
        <ele>741.2</ele>
        <time>2015-09-22T12:03:38Z</time>
      </trkpt>
      <trkpt lat="42.33238" lon="0.14914">
        <ele>741.3</ele>
        <time>2015-09-22T12:03:39Z</time>
      </trkpt>
      <trkpt lat="42.33239" lon="0.14918">
        <ele>741.3</ele>
        <time>2015-09-22T12:03:40Z</time>
      </trkpt>
      <trkpt lat="42.33239" lon="0.14923">
        <ele>741.4</ele>
        <time>2015-09-22T12:03:41Z</time>
      </trkpt>
      <trkpt lat="42.33239" lon="0.14927">
        <ele>741.5</ele>
        <time>2015-09-22T12:03:42Z</time>
      </trkpt>
      <trkpt lat="42.3324" lon="0.14931">
        <ele>741.6</ele>
        <time>2015-09-22T12:03:43Z</time>
      </trkpt>
      <trkpt lat="42.33241" lon="0.14935">
        <ele>741.6</ele>
        <time>2015-09-22T12:03:44Z</time>
      </trkpt>
      <trkpt lat="42.33242" lon="0.14939">
        <ele>741.7</ele>
        <time>2015-09-22T12:03:45Z</time>
      </trkpt>
      <trkpt lat="42.33243" lon="0.14944">
        <ele>741.7</ele>
        <time>2015-09-22T12:03:46Z</time>
      </trkpt>
      <trkpt lat="42.33245" lon="0.14949">
        <ele>741.7</ele>
        <time>2015-09-22T12:03:47Z</time>
      </trkpt>
      <trkpt lat="42.33246" lon="0.14955">
        <ele>741.7</ele>
        <time>2015-09-22T12:03:48Z</time>
      </trkpt>
      <trkpt lat="42.33248" lon="0.1496">
        <ele>741.6</ele>
        <time>2015-09-22T12:03:49Z</time>
      </trkpt>
      <trkpt lat="42.3325" lon="0.14966">
        <ele>741.4</ele>
        <time>2015-09-22T12:03:50Z</time>
      </trkpt>
      <trkpt lat="42.33251" lon="0.14973">
        <ele>741.1</ele>
        <time>2015-09-22T12:03:51Z</time>
      </trkpt>
      <trkpt lat="42.33253" lon="0.14978">
        <ele>740.9</ele>
        <time>2015-09-22T12:03:52Z</time>
      </trkpt>
      <trkpt lat="42.33254" lon="0.14983">
        <ele>740.7</ele>
        <time>2015-09-22T12:03:53Z</time>
      </trkpt>
      <trkpt lat="42.33255" lon="0.14988">
        <ele>740.4</ele>
        <time>2015-09-22T12:03:54Z</time>
      </trkpt>
      <trkpt lat="42.33257" lon="0.14991">
        <ele>740.1</ele>
        <time>2015-09-22T12:03:55Z</time>
      </trkpt>
      <trkpt lat="42.33259" lon="0.14994">
        <ele>739.8</ele>
        <time>2015-09-22T12:03:56Z</time>
      </trkpt>
      <trkpt lat="42.33261" lon="0.14998">
        <ele>739.5</ele>
        <time>2015-09-22T12:03:57Z</time>
      </trkpt>
      <trkpt lat="42.33263" lon="0.15001">
        <ele>739.1</ele>
        <time>2015-09-22T12:03:58Z</time>
      </trkpt>
      <trkpt lat="42.33265" lon="0.15005">
        <ele>738.7</ele>
        <time>2015-09-22T12:03:59Z</time>
      </trkpt>
      <trkpt lat="42.33267" lon="0.15009">
        <ele>738.3</ele>
        <time>2015-09-22T12:04:00Z</time>
      </trkpt>
      <trkpt lat="42.33268" lon="0.15012">
        <ele>737.9</ele>
        <time>2015-09-22T12:04:01Z</time>
      </trkpt>
      <trkpt lat="42.33272" lon="0.15014">
        <ele>737.3</ele>
        <time>2015-09-22T12:04:03Z</time>
      </trkpt>
      <trkpt lat="42.33276" lon="0.15014">
        <ele>736.7</ele>
        <time>2015-09-22T12:04:05Z</time>
      </trkpt>
      <trkpt lat="42.33281" lon="0.15012">
        <ele>736.1</ele>
        <time>2015-09-22T12:04:07Z</time>
      </trkpt>
      <trkpt lat="42.33284" lon="0.15011">
        <ele>735.7</ele>
        <time>2015-09-22T12:04:08Z</time>
      </trkpt>
      <trkpt lat="42.33287" lon="0.15009">
        <ele>735.4</ele>
        <time>2015-09-22T12:04:09Z</time>
      </trkpt>
      <trkpt lat="42.33291" lon="0.15007">
        <ele>734.9</ele>
        <time>2015-09-22T12:04:11Z</time>
      </trkpt>
      <trkpt lat="42.33295" lon="0.15008">
        <ele>734.5</ele>
        <time>2015-09-22T12:04:13Z</time>
      </trkpt>
      <trkpt lat="42.33298" lon="0.15009">
        <ele>734</ele>
        <time>2015-09-22T12:04:15Z</time>
      </trkpt>
      <trkpt lat="42.33302" lon="0.15011">
        <ele>733.3</ele>
        <time>2015-09-22T12:04:17Z</time>
      </trkpt>
      <trkpt lat="42.33307" lon="0.15015">
        <ele>732.4</ele>
        <time>2015-09-22T12:04:19Z</time>
      </trkpt>
      <trkpt lat="42.3331" lon="0.15017">
        <ele>732</ele>
        <time>2015-09-22T12:04:20Z</time>
      </trkpt>
      <trkpt lat="42.33312" lon="0.15018">
        <ele>731.5</ele>
        <time>2015-09-22T12:04:21Z</time>
      </trkpt>
      <trkpt lat="42.33316" lon="0.1502">
        <ele>730.9</ele>
        <time>2015-09-22T12:04:22Z</time>
      </trkpt>
      <trkpt lat="42.33319" lon="0.15022">
        <ele>730.3</ele>
        <time>2015-09-22T12:04:23Z</time>
      </trkpt>
      <trkpt lat="42.33322" lon="0.15024">
        <ele>729.8</ele>
        <time>2015-09-22T12:04:24Z</time>
      </trkpt>
      <trkpt lat="42.33326" lon="0.15027">
        <ele>729.2</ele>
        <time>2015-09-22T12:04:25Z</time>
      </trkpt>
      <trkpt lat="42.33329" lon="0.15029">
        <ele>728.5</ele>
        <time>2015-09-22T12:04:26Z</time>
      </trkpt>
      <trkpt lat="42.33334" lon="0.15031">
        <ele>727.8</ele>
        <time>2015-09-22T12:04:27Z</time>
      </trkpt>
      <trkpt lat="42.3334" lon="0.15032">
        <ele>727</ele>
        <time>2015-09-22T12:04:28Z</time>
      </trkpt>
      <trkpt lat="42.33345" lon="0.15033">
        <ele>726.3</ele>
        <time>2015-09-22T12:04:29Z</time>
      </trkpt>
      <trkpt lat="42.3335" lon="0.15035">
        <ele>725.5</ele>
        <time>2015-09-22T12:04:30Z</time>
      </trkpt>
      <trkpt lat="42.33356" lon="0.15038">
        <ele>724.6</ele>
        <time>2015-09-22T12:04:31Z</time>
      </trkpt>
      <trkpt lat="42.33362" lon="0.1504">
        <ele>723.7</ele>
        <time>2015-09-22T12:04:32Z</time>
      </trkpt>
      <trkpt lat="42.33367" lon="0.15044">
        <ele>723.1</ele>
        <time>2015-09-22T12:04:33Z</time>
      </trkpt>
      <trkpt lat="42.33372" lon="0.1505">
        <ele>722.7</ele>
        <time>2015-09-22T12:04:34Z</time>
      </trkpt>
      <trkpt lat="42.33375" lon="0.15057">
        <ele>722.5</ele>
        <time>2015-09-22T12:04:35Z</time>
      </trkpt>
      <trkpt lat="42.33378" lon="0.15063">
        <ele>722.6</ele>
        <time>2015-09-22T12:04:36Z</time>
      </trkpt>
      <trkpt lat="42.33381" lon="0.1507">
        <ele>722.6</ele>
        <time>2015-09-22T12:04:37Z</time>
      </trkpt>
      <trkpt lat="42.33384" lon="0.15076">
        <ele>722.6</ele>
        <time>2015-09-22T12:04:38Z</time>
      </trkpt>
      <trkpt lat="42.33388" lon="0.15082">
        <ele>722.6</ele>
        <time>2015-09-22T12:04:39Z</time>
      </trkpt>
      <trkpt lat="42.33391" lon="0.15088">
        <ele>722.6</ele>
        <time>2015-09-22T12:04:40Z</time>
      </trkpt>
      <trkpt lat="42.33394" lon="0.15095">
        <ele>722.6</ele>
        <time>2015-09-22T12:04:41Z</time>
      </trkpt>
      <trkpt lat="42.33396" lon="0.15101">
        <ele>722.6</ele>
        <time>2015-09-22T12:04:42Z</time>
      </trkpt>
      <trkpt lat="42.334" lon="0.15107">
        <ele>722.5</ele>
        <time>2015-09-22T12:04:43Z</time>
      </trkpt>
      <trkpt lat="42.33404" lon="0.15113">
        <ele>722.3</ele>
        <time>2015-09-22T12:04:44Z</time>
      </trkpt>
      <trkpt lat="42.33407" lon="0.15117">
        <ele>722.1</ele>
        <time>2015-09-22T12:04:45Z</time>
      </trkpt>
      <trkpt lat="42.33411" lon="0.15121">
        <ele>721.9</ele>
        <time>2015-09-22T12:04:46Z</time>
      </trkpt>
      <trkpt lat="42.33413" lon="0.15124">
        <ele>721.8</ele>
        <time>2015-09-22T12:04:47Z</time>
      </trkpt>
      <trkpt lat="42.33417" lon="0.15126">
        <ele>721.5</ele>
        <time>2015-09-22T12:04:48Z</time>
      </trkpt>
      <trkpt lat="42.3342" lon="0.15129">
        <ele>721.1</ele>
        <time>2015-09-22T12:04:49Z</time>
      </trkpt>
      <trkpt lat="42.33423" lon="0.15132">
        <ele>720.8</ele>
        <time>2015-09-22T12:04:50Z</time>
      </trkpt>
      <trkpt lat="42.33426" lon="0.15136">
        <ele>720.4</ele>
        <time>2015-09-22T12:04:51Z</time>
      </trkpt>
      <trkpt lat="42.3343" lon="0.15139">
        <ele>720</ele>
        <time>2015-09-22T12:04:52Z</time>
      </trkpt>
      <trkpt lat="42.33433" lon="0.15143">
        <ele>719.5</ele>
        <time>2015-09-22T12:04:53Z</time>
      </trkpt>
      <trkpt lat="42.33436" lon="0.15148">
        <ele>719</ele>
        <time>2015-09-22T12:04:54Z</time>
      </trkpt>
      <trkpt lat="42.33439" lon="0.15154">
        <ele>718.5</ele>
        <time>2015-09-22T12:04:55Z</time>
      </trkpt>
      <trkpt lat="42.33442" lon="0.15158">
        <ele>718.1</ele>
        <time>2015-09-22T12:04:56Z</time>
      </trkpt>
      <trkpt lat="42.33446" lon="0.15163">
        <ele>717.4</ele>
        <time>2015-09-22T12:04:57Z</time>
      </trkpt>
      <trkpt lat="42.3345" lon="0.15167">
        <ele>716.9</ele>
        <time>2015-09-22T12:04:58Z</time>
      </trkpt>
      <trkpt lat="42.33453" lon="0.15171">
        <ele>716.3</ele>
        <time>2015-09-22T12:04:59Z</time>
      </trkpt>
      <trkpt lat="42.33456" lon="0.15175">
        <ele>715.8</ele>
        <time>2015-09-22T12:05:00Z</time>
      </trkpt>
      <trkpt lat="42.33459" lon="0.15178">
        <ele>715.4</ele>
        <time>2015-09-22T12:05:01Z</time>
      </trkpt>
      <trkpt lat="42.3346" lon="0.15184">
        <ele>715</ele>
        <time>2015-09-22T12:05:03Z</time>
      </trkpt>
      <trkpt lat="42.33463" lon="0.15189">
        <ele>714.7</ele>
        <time>2015-09-22T12:05:05Z</time>
      </trkpt>
      <trkpt lat="42.33465" lon="0.1519">
        <ele>714.4</ele>
        <time>2015-09-22T12:05:06Z</time>
      </trkpt>
      <trkpt lat="42.33469" lon="0.15194">
        <ele>714</ele>
        <time>2015-09-22T12:05:08Z</time>
      </trkpt>
      <trkpt lat="42.33473" lon="0.15199">
        <ele>713.5</ele>
        <time>2015-09-22T12:05:10Z</time>
      </trkpt>
      <trkpt lat="42.33475" lon="0.15202">
        <ele>713.3</ele>
        <time>2015-09-22T12:05:11Z</time>
      </trkpt>
      <trkpt lat="42.33478" lon="0.15204">
        <ele>713</ele>
        <time>2015-09-22T12:05:12Z</time>
      </trkpt>
      <trkpt lat="42.33481" lon="0.15208">
        <ele>712.7</ele>
        <time>2015-09-22T12:05:13Z</time>
      </trkpt>
      <trkpt lat="42.33485" lon="0.1521">
        <ele>712.4</ele>
        <time>2015-09-22T12:05:14Z</time>
      </trkpt>
      <trkpt lat="42.33488" lon="0.15212">
        <ele>712.1</ele>
        <time>2015-09-22T12:05:15Z</time>
      </trkpt>
      <trkpt lat="42.33492" lon="0.15214">
        <ele>711.9</ele>
        <time>2015-09-22T12:05:16Z</time>
      </trkpt>
      <trkpt lat="42.33495" lon="0.15215">
        <ele>711.6</ele>
        <time>2015-09-22T12:05:17Z</time>
      </trkpt>
      <trkpt lat="42.33499" lon="0.15217">
        <ele>711.4</ele>
        <time>2015-09-22T12:05:18Z</time>
      </trkpt>
      <trkpt lat="42.33503" lon="0.15217">
        <ele>711.1</ele>
        <time>2015-09-22T12:05:19Z</time>
      </trkpt>
      <trkpt lat="42.33506" lon="0.15217">
        <ele>710.9</ele>
        <time>2015-09-22T12:05:20Z</time>
      </trkpt>
      <trkpt lat="42.33509" lon="0.15218">
        <ele>710.7</ele>
        <time>2015-09-22T12:05:21Z</time>
      </trkpt>
      <trkpt lat="42.33512" lon="0.15222">
        <ele>710.4</ele>
        <time>2015-09-22T12:05:23Z</time>
      </trkpt>
      <trkpt lat="42.33513" lon="0.15225">
        <ele>710.2</ele>
        <time>2015-09-22T12:05:24Z</time>
      </trkpt>
      <trkpt lat="42.33515" lon="0.15231">
        <ele>710</ele>
        <time>2015-09-22T12:05:26Z</time>
      </trkpt>
      <trkpt lat="42.33516" lon="0.15238">
        <ele>709.7</ele>
        <time>2015-09-22T12:05:28Z</time>
      </trkpt>
      <trkpt lat="42.33517" lon="0.15242">
        <ele>709.5</ele>
        <time>2015-09-22T12:05:29Z</time>
      </trkpt>
      <trkpt lat="42.33519" lon="0.15248">
        <ele>709.2</ele>
        <time>2015-09-22T12:05:30Z</time>
      </trkpt>
      <trkpt lat="42.33521" lon="0.15253">
        <ele>708.9</ele>
        <time>2015-09-22T12:05:31Z</time>
      </trkpt>
      <trkpt lat="42.33523" lon="0.15259">
        <ele>708.6</ele>
        <time>2015-09-22T12:05:32Z</time>
      </trkpt>
      <trkpt lat="42.33525" lon="0.15264">
        <ele>708.3</ele>
        <time>2015-09-22T12:05:33Z</time>
      </trkpt>
      <trkpt lat="42.33526" lon="0.15269">
        <ele>708.1</ele>
        <time>2015-09-22T12:05:34Z</time>
      </trkpt>
      <trkpt lat="42.33526" lon="0.15274">
        <ele>707.9</ele>
        <time>2015-09-22T12:05:36Z</time>
      </trkpt>
      <trkpt lat="42.33527" lon="0.15279">
        <ele>707.6</ele>
        <time>2015-09-22T12:05:38Z</time>
      </trkpt>
      <trkpt lat="42.33528" lon="0.15285">
        <ele>707.4</ele>
        <time>2015-09-22T12:05:40Z</time>
      </trkpt>
      <trkpt lat="42.3353" lon="0.15291">
        <ele>707</ele>
        <time>2015-09-22T12:05:42Z</time>
      </trkpt>
      <trkpt lat="42.33532" lon="0.15294">
        <ele>706.7</ele>
        <time>2015-09-22T12:05:43Z</time>
      </trkpt>
      <trkpt lat="42.33534" lon="0.15297">
        <ele>706.3</ele>
        <time>2015-09-22T12:05:44Z</time>
      </trkpt>
      <trkpt lat="42.33536" lon="0.15301">
        <ele>705.9</ele>
        <time>2015-09-22T12:05:45Z</time>
      </trkpt>
      <trkpt lat="42.33538" lon="0.15304">
        <ele>705.4</ele>
        <time>2015-09-22T12:05:46Z</time>
      </trkpt>
      <trkpt lat="42.33541" lon="0.15307">
        <ele>704.9</ele>
        <time>2015-09-22T12:05:47Z</time>
      </trkpt>
      <trkpt lat="42.33544" lon="0.15311">
        <ele>704.6</ele>
        <time>2015-09-22T12:05:48Z</time>
      </trkpt>
      <trkpt lat="42.33548" lon="0.15315">
        <ele>704.2</ele>
        <time>2015-09-22T12:05:49Z</time>
      </trkpt>
      <trkpt lat="42.33552" lon="0.15322">
        <ele>703.7</ele>
        <time>2015-09-22T12:05:50Z</time>
      </trkpt>
      <trkpt lat="42.33555" lon="0.15325">
        <ele>703.3</ele>
        <time>2015-09-22T12:05:51Z</time>
      </trkpt>
      <trkpt lat="42.33557" lon="0.15328">
        <ele>703.1</ele>
        <time>2015-09-22T12:05:52Z</time>
      </trkpt>
      <trkpt lat="42.33561" lon="0.15332">
        <ele>702.6</ele>
        <time>2015-09-22T12:05:54Z</time>
      </trkpt>
      <trkpt lat="42.33563" lon="0.15335">
        <ele>702.3</ele>
        <time>2015-09-22T12:05:56Z</time>
      </trkpt>
      <trkpt lat="42.33566" lon="0.15338">
        <ele>702</ele>
        <time>2015-09-22T12:05:59Z</time>
      </trkpt>
      <trkpt lat="42.33569" lon="0.15339">
        <ele>701.8</ele>
        <time>2015-09-22T12:06:02Z</time>
      </trkpt>
      <trkpt lat="42.33573" lon="0.15342">
        <ele>701.4</ele>
        <time>2015-09-22T12:06:05Z</time>
      </trkpt>
      <trkpt lat="42.33575" lon="0.15345">
        <ele>701.1</ele>
        <time>2015-09-22T12:06:07Z</time>
      </trkpt>
      <trkpt lat="42.33578" lon="0.15347">
        <ele>700.7</ele>
        <time>2015-09-22T12:06:10Z</time>
      </trkpt>
      <trkpt lat="42.33582" lon="0.15344">
        <ele>700.9</ele>
        <time>2015-09-22T12:06:13Z</time>
      </trkpt>
      <trkpt lat="42.33584" lon="0.15341">
        <ele>701.1</ele>
        <time>2015-09-22T12:06:15Z</time>
      </trkpt>
      <trkpt lat="42.33586" lon="0.15338">
        <ele>701.4</ele>
        <time>2015-09-22T12:06:16Z</time>
      </trkpt>
      <trkpt lat="42.33589" lon="0.15334">
        <ele>701.8</ele>
        <time>2015-09-22T12:06:17Z</time>
      </trkpt>
      <trkpt lat="42.33593" lon="0.15332">
        <ele>702</ele>
        <time>2015-09-22T12:06:18Z</time>
      </trkpt>
      <trkpt lat="42.33596" lon="0.15329">
        <ele>702.2</ele>
        <time>2015-09-22T12:06:19Z</time>
      </trkpt>
      <trkpt lat="42.33599" lon="0.15327">
        <ele>702.5</ele>
        <time>2015-09-22T12:06:20Z</time>
      </trkpt>
      <trkpt lat="42.33601" lon="0.15324">
        <ele>702.8</ele>
        <time>2015-09-22T12:06:21Z</time>
      </trkpt>
      <trkpt lat="42.33603" lon="0.15321">
        <ele>703</ele>
        <time>2015-09-22T12:06:23Z</time>
      </trkpt>
      <trkpt lat="42.33606" lon="0.15318">
        <ele>703.4</ele>
        <time>2015-09-22T12:06:26Z</time>
      </trkpt>
      <trkpt lat="42.33609" lon="0.15314">
        <ele>703.9</ele>
        <time>2015-09-22T12:06:29Z</time>
      </trkpt>
      <trkpt lat="42.33611" lon="0.15312">
        <ele>704.2</ele>
        <time>2015-09-22T12:06:31Z</time>
      </trkpt>
      <trkpt lat="42.33613" lon="0.15309">
        <ele>704.6</ele>
        <time>2015-09-22T12:06:33Z</time>
      </trkpt>
      <trkpt lat="42.33616" lon="0.15306">
        <ele>704.9</ele>
        <time>2015-09-22T12:06:35Z</time>
      </trkpt>
      <trkpt lat="42.3362" lon="0.15303">
        <ele>705.3</ele>
        <time>2015-09-22T12:06:37Z</time>
      </trkpt>
      <trkpt lat="42.33623" lon="0.153">
        <ele>705.8</ele>
        <time>2015-09-22T12:06:39Z</time>
      </trkpt>
      <trkpt lat="42.33626" lon="0.15298">
        <ele>706</ele>
        <time>2015-09-22T12:06:41Z</time>
      </trkpt>
      <trkpt lat="42.33628" lon="0.15299">
        <ele>705</ele>
        <time>2015-09-22T12:06:54Z</time>
      </trkpt>
      <trkpt lat="42.33628" lon="0.15304">
        <ele>704.5</ele>
        <time>2015-09-22T12:07:13Z</time>
      </trkpt>
      <trkpt lat="42.33626" lon="0.15307">
        <ele>704.5</ele>
        <time>2015-09-22T12:07:15Z</time>
      </trkpt>
      <trkpt lat="42.33623" lon="0.15311">
        <ele>704.2</ele>
        <time>2015-09-22T12:07:17Z</time>
      </trkpt>
      <trkpt lat="42.33622" lon="0.15314">
        <ele>703.8</ele>
        <time>2015-09-22T12:07:18Z</time>
      </trkpt>
      <trkpt lat="42.3362" lon="0.15318">
        <ele>703.3</ele>
        <time>2015-09-22T12:07:19Z</time>
      </trkpt>
      <trkpt lat="42.33619" lon="0.15323">
        <ele>702.6</ele>
        <time>2015-09-22T12:07:21Z</time>
      </trkpt>
      <trkpt lat="42.33622" lon="0.15322">
        <ele>702.7</ele>
        <time>2015-09-22T12:07:31Z</time>
      </trkpt>
      <trkpt lat="42.33624" lon="0.15317">
        <ele>703.4</ele>
        <time>2015-09-22T12:07:34Z</time>
      </trkpt>
      <trkpt lat="42.33627" lon="0.15312">
        <ele>703.3</ele>
        <time>2015-09-22T12:07:36Z</time>
      </trkpt>
      <trkpt lat="42.33631" lon="0.15309">
        <ele>702.7</ele>
        <time>2015-09-22T12:07:38Z</time>
      </trkpt>
      <trkpt lat="42.33634" lon="0.15306">
        <ele>702</ele>
        <time>2015-09-22T12:07:40Z</time>
      </trkpt>
      <trkpt lat="42.33637" lon="0.15305">
        <ele>701.2</ele>
        <time>2015-09-22T12:07:42Z</time>
      </trkpt>
      <trkpt lat="42.3364" lon="0.15305">
        <ele>700.4</ele>
        <time>2015-09-22T12:07:44Z</time>
      </trkpt>
      <trkpt lat="42.33643" lon="0.15303">
        <ele>699.8</ele>
        <time>2015-09-22T12:07:46Z</time>
      </trkpt>
      <trkpt lat="42.33646" lon="0.15301">
        <ele>699.4</ele>
        <time>2015-09-22T12:07:48Z</time>
      </trkpt>
      <trkpt lat="42.33648" lon="0.15298">
        <ele>699.1</ele>
        <time>2015-09-22T12:07:50Z</time>
      </trkpt>
      <trkpt lat="42.33651" lon="0.15296">
        <ele>698.7</ele>
        <time>2015-09-22T12:07:52Z</time>
      </trkpt>
      <trkpt lat="42.33655" lon="0.15296">
        <ele>697.7</ele>
        <time>2015-09-22T12:07:54Z</time>
      </trkpt>
      <trkpt lat="42.33658" lon="0.15297">
        <ele>696.6</ele>
        <time>2015-09-22T12:08:04Z</time>
      </trkpt>
      <trkpt lat="42.3366" lon="0.15293">
        <ele>696.6</ele>
        <time>2015-09-22T12:08:13Z</time>
      </trkpt>
      <trkpt lat="42.33663" lon="0.15292">
        <ele>696.2</ele>
        <time>2015-09-22T12:08:15Z</time>
      </trkpt>
      <trkpt lat="42.33666" lon="0.15291">
        <ele>695.3</ele>
        <time>2015-09-22T12:08:17Z</time>
      </trkpt>
      <trkpt lat="42.33668" lon="0.1529">
        <ele>694.9</ele>
        <time>2015-09-22T12:08:19Z</time>
      </trkpt>
      <trkpt lat="42.33671" lon="0.15287">
        <ele>694.5</ele>
        <time>2015-09-22T12:08:21Z</time>
      </trkpt>
      <trkpt lat="42.33673" lon="0.15283">
        <ele>694.6</ele>
        <time>2015-09-22T12:08:23Z</time>
      </trkpt>
      <trkpt lat="42.33676" lon="0.15279">
        <ele>694.7</ele>
        <time>2015-09-22T12:08:26Z</time>
      </trkpt>
      <trkpt lat="42.33678" lon="0.15276">
        <ele>694.6</ele>
        <time>2015-09-22T12:08:28Z</time>
      </trkpt>
      <trkpt lat="42.33681" lon="0.15273">
        <ele>694.4</ele>
        <time>2015-09-22T12:08:30Z</time>
      </trkpt>
      <trkpt lat="42.33684" lon="0.15269">
        <ele>694.4</ele>
        <time>2015-09-22T12:08:32Z</time>
      </trkpt>
      <trkpt lat="42.33687" lon="0.15265">
        <ele>694.5</ele>
        <time>2015-09-22T12:08:34Z</time>
      </trkpt>
      <trkpt lat="42.3369" lon="0.15261">
        <ele>694.6</ele>
        <time>2015-09-22T12:08:36Z</time>
      </trkpt>
      <trkpt lat="42.33692" lon="0.15257">
        <ele>694.8</ele>
        <time>2015-09-22T12:08:38Z</time>
      </trkpt>
      <trkpt lat="42.33694" lon="0.15253">
        <ele>695.4</ele>
        <time>2015-09-22T12:08:40Z</time>
      </trkpt>
      <trkpt lat="42.33696" lon="0.15249">
        <ele>695.9</ele>
        <time>2015-09-22T12:08:41Z</time>
      </trkpt>
      <trkpt lat="42.33697" lon="0.15245">
        <ele>696.5</ele>
        <time>2015-09-22T12:08:42Z</time>
      </trkpt>
      <trkpt lat="42.33698" lon="0.15241">
        <ele>697.1</ele>
        <time>2015-09-22T12:08:43Z</time>
      </trkpt>
      <trkpt lat="42.33699" lon="0.15238">
        <ele>697.6</ele>
        <time>2015-09-22T12:08:44Z</time>
      </trkpt>
      <trkpt lat="42.33701" lon="0.15235">
        <ele>697.8</ele>
        <time>2015-09-22T12:08:45Z</time>
      </trkpt>
      <trkpt lat="42.33705" lon="0.15234">
        <ele>697.4</ele>
        <time>2015-09-22T12:08:46Z</time>
      </trkpt>
      <trkpt lat="42.33709" lon="0.15234">
        <ele>696.7</ele>
        <time>2015-09-22T12:08:47Z</time>
      </trkpt>
      <trkpt lat="42.33713" lon="0.15234">
        <ele>695.8</ele>
        <time>2015-09-22T12:08:48Z</time>
      </trkpt>
      <trkpt lat="42.33717" lon="0.15234">
        <ele>694.9</ele>
        <time>2015-09-22T12:08:49Z</time>
      </trkpt>
      <trkpt lat="42.33721" lon="0.15234">
        <ele>694</ele>
        <time>2015-09-22T12:08:50Z</time>
      </trkpt>
      <trkpt lat="42.33725" lon="0.15234">
        <ele>693.2</ele>
        <time>2015-09-22T12:08:51Z</time>
      </trkpt>
      <trkpt lat="42.33728" lon="0.15235">
        <ele>692.3</ele>
        <time>2015-09-22T12:08:52Z</time>
      </trkpt>
      <trkpt lat="42.33731" lon="0.15235">
        <ele>691.5</ele>
        <time>2015-09-22T12:08:53Z</time>
      </trkpt>
      <trkpt lat="42.33729" lon="0.15235">
        <ele>692.3</ele>
        <time>2015-09-22T12:09:02Z</time>
      </trkpt>
      <trkpt lat="42.33731" lon="0.15232">
        <ele>692.6</ele>
        <time>2015-09-22T12:09:22Z</time>
      </trkpt>
      <trkpt lat="42.33734" lon="0.15233">
        <ele>691.8</ele>
        <time>2015-09-22T12:09:24Z</time>
      </trkpt>
      <trkpt lat="42.33737" lon="0.15234">
        <ele>690.5</ele>
        <time>2015-09-22T12:09:26Z</time>
      </trkpt>
      <trkpt lat="42.33743" lon="0.15235">
        <ele>689.1</ele>
        <time>2015-09-22T12:09:28Z</time>
      </trkpt>
      <trkpt lat="42.33747" lon="0.15234">
        <ele>688.5</ele>
        <time>2015-09-22T12:09:29Z</time>
      </trkpt>
      <trkpt lat="42.33751" lon="0.15233">
        <ele>688.1</ele>
        <time>2015-09-22T12:09:30Z</time>
      </trkpt>
      <trkpt lat="42.33754" lon="0.15231">
        <ele>687.7</ele>
        <time>2015-09-22T12:09:31Z</time>
      </trkpt>
      <trkpt lat="42.33758" lon="0.1523">
        <ele>687.6</ele>
        <time>2015-09-22T12:09:32Z</time>
      </trkpt>
      <trkpt lat="42.33763" lon="0.15227">
        <ele>687.5</ele>
        <time>2015-09-22T12:09:33Z</time>
      </trkpt>
      <trkpt lat="42.33766" lon="0.15225">
        <ele>687.4</ele>
        <time>2015-09-22T12:09:34Z</time>
      </trkpt>
      <trkpt lat="42.33769" lon="0.15223">
        <ele>687.5</ele>
        <time>2015-09-22T12:09:35Z</time>
      </trkpt>
      <trkpt lat="42.33772" lon="0.15221">
        <ele>687.7</ele>
        <time>2015-09-22T12:09:36Z</time>
      </trkpt>
      <trkpt lat="42.33776" lon="0.1522">
        <ele>687.6</ele>
        <time>2015-09-22T12:09:38Z</time>
      </trkpt>
      <trkpt lat="42.3378" lon="0.15219">
        <ele>686.9</ele>
        <time>2015-09-22T12:09:40Z</time>
      </trkpt>
      <trkpt lat="42.33785" lon="0.15223">
        <ele>684.6</ele>
        <time>2015-09-22T12:09:42Z</time>
      </trkpt>
      <trkpt lat="42.33788" lon="0.15225">
        <ele>683</ele>
        <time>2015-09-22T12:09:43Z</time>
      </trkpt>
      <trkpt lat="42.33792" lon="0.15229">
        <ele>680.8</ele>
        <time>2015-09-22T12:09:45Z</time>
      </trkpt>
      <trkpt lat="42.33795" lon="0.15234">
        <ele>678.4</ele>
        <time>2015-09-22T12:09:47Z</time>
      </trkpt>
      <trkpt lat="42.33796" lon="0.15238">
        <ele>677</ele>
        <time>2015-09-22T12:09:48Z</time>
      </trkpt>
      <trkpt lat="42.33798" lon="0.15243">
        <ele>674.9</ele>
        <time>2015-09-22T12:09:49Z</time>
      </trkpt>
      <trkpt lat="42.33801" lon="0.15246">
        <ele>673.4</ele>
        <time>2015-09-22T12:09:50Z</time>
      </trkpt>
      <trkpt lat="42.33804" lon="0.15248">
        <ele>672.4</ele>
        <time>2015-09-22T12:09:51Z</time>
      </trkpt>
      <trkpt lat="42.33807" lon="0.15249">
        <ele>671.8</ele>
        <time>2015-09-22T12:09:52Z</time>
      </trkpt>
      <trkpt lat="42.3381" lon="0.15249">
        <ele>671.5</ele>
        <time>2015-09-22T12:09:54Z</time>
      </trkpt>
      <trkpt lat="42.33813" lon="0.15249">
        <ele>671.2</ele>
        <time>2015-09-22T12:09:57Z</time>
      </trkpt>
      <trkpt lat="42.33817" lon="0.1525">
        <ele>670.5</ele>
        <time>2015-09-22T12:10:00Z</time>
      </trkpt>
      <trkpt lat="42.33822" lon="0.15251">
        <ele>669.7</ele>
        <time>2015-09-22T12:10:02Z</time>
      </trkpt>
      <trkpt lat="42.33825" lon="0.15251">
        <ele>669.3</ele>
        <time>2015-09-22T12:10:03Z</time>
      </trkpt>
      <trkpt lat="42.33827" lon="0.15253">
        <ele>668.4</ele>
        <time>2015-09-22T12:10:04Z</time>
      </trkpt>
      <trkpt lat="42.3383" lon="0.15256">
        <ele>666.9</ele>
        <time>2015-09-22T12:10:05Z</time>
      </trkpt>
      <trkpt lat="42.33832" lon="0.1526">
        <ele>665.3</ele>
        <time>2015-09-22T12:10:06Z</time>
      </trkpt>
      <trkpt lat="42.33835" lon="0.15263">
        <ele>663.8</ele>
        <time>2015-09-22T12:10:07Z</time>
      </trkpt>
      <trkpt lat="42.33837" lon="0.15267">
        <ele>662.4</ele>
        <time>2015-09-22T12:10:08Z</time>
      </trkpt>
      <trkpt lat="42.33839" lon="0.1527">
        <ele>661</ele>
        <time>2015-09-22T12:10:09Z</time>
      </trkpt>
      <trkpt lat="42.33841" lon="0.15273">
        <ele>659.5</ele>
        <time>2015-09-22T12:10:10Z</time>
      </trkpt>
      <trkpt lat="42.33842" lon="0.15279">
        <ele>657.1</ele>
        <time>2015-09-22T12:10:12Z</time>
      </trkpt>
      <trkpt lat="42.33843" lon="0.15285">
        <ele>654.7</ele>
        <time>2015-09-22T12:10:14Z</time>
      </trkpt>
      <trkpt lat="42.33844" lon="0.1529">
        <ele>652.7</ele>
        <time>2015-09-22T12:10:16Z</time>
      </trkpt>
      <trkpt lat="42.33846" lon="0.15293">
        <ele>651.6</ele>
        <time>2015-09-22T12:10:18Z</time>
      </trkpt>
      <trkpt lat="42.33849" lon="0.15296">
        <ele>650.4</ele>
        <time>2015-09-22T12:10:20Z</time>
      </trkpt>
      <trkpt lat="42.33853" lon="0.15302">
        <ele>648.3</ele>
        <time>2015-09-22T12:10:22Z</time>
      </trkpt>
      <trkpt lat="42.33855" lon="0.15305">
        <ele>647.1</ele>
        <time>2015-09-22T12:10:23Z</time>
      </trkpt>
      <trkpt lat="42.33859" lon="0.1531">
        <ele>645.2</ele>
        <time>2015-09-22T12:10:25Z</time>
      </trkpt>
      <trkpt lat="42.33863" lon="0.15311">
        <ele>644.6</ele>
        <time>2015-09-22T12:10:27Z</time>
      </trkpt>
      <trkpt lat="42.33868" lon="0.1531">
        <ele>644.6</ele>
        <time>2015-09-22T12:10:29Z</time>
      </trkpt>
      <trkpt lat="42.33873" lon="0.1531">
        <ele>644.2</ele>
        <time>2015-09-22T12:10:31Z</time>
      </trkpt>
      <trkpt lat="42.33876" lon="0.15316">
        <ele>642.1</ele>
        <time>2015-09-22T12:10:33Z</time>
      </trkpt>
      <trkpt lat="42.33877" lon="0.1532">
        <ele>640.8</ele>
        <time>2015-09-22T12:10:34Z</time>
      </trkpt>
      <trkpt lat="42.33878" lon="0.15324">
        <ele>639.6</ele>
        <time>2015-09-22T12:10:35Z</time>
      </trkpt>
      <trkpt lat="42.3388" lon="0.15328">
        <ele>638.2</ele>
        <time>2015-09-22T12:10:36Z</time>
      </trkpt>
      <trkpt lat="42.33882" lon="0.15334">
        <ele>636.1</ele>
        <time>2015-09-22T12:10:37Z</time>
      </trkpt>
      <trkpt lat="42.33884" lon="0.1534">
        <ele>634.2</ele>
        <time>2015-09-22T12:10:38Z</time>
      </trkpt>
      <trkpt lat="42.33885" lon="0.15346">
        <ele>632.1</ele>
        <time>2015-09-22T12:10:39Z</time>
      </trkpt>
      <trkpt lat="42.33888" lon="0.15355">
        <ele>629.2</ele>
        <time>2015-09-22T12:10:40Z</time>
      </trkpt>
      <trkpt lat="42.33891" lon="0.15362">
        <ele>626.9</ele>
        <time>2015-09-22T12:10:41Z</time>
      </trkpt>
      <trkpt lat="42.33893" lon="0.15367">
        <ele>625.5</ele>
        <time>2015-09-22T12:10:42Z</time>
      </trkpt>
      <trkpt lat="42.33896" lon="0.15372">
        <ele>623.9</ele>
        <time>2015-09-22T12:10:43Z</time>
      </trkpt>
      <trkpt lat="42.33898" lon="0.15376">
        <ele>622.8</ele>
        <time>2015-09-22T12:10:44Z</time>
      </trkpt>
      <trkpt lat="42.33901" lon="0.15381">
        <ele>621.9</ele>
        <time>2015-09-22T12:10:45Z</time>
      </trkpt>
      <trkpt lat="42.33904" lon="0.15384">
        <ele>621.5</ele>
        <time>2015-09-22T12:10:46Z</time>
      </trkpt>
      <trkpt lat="42.33908" lon="0.15388">
        <ele>620.8</ele>
        <time>2015-09-22T12:10:47Z</time>
      </trkpt>
      <trkpt lat="42.33912" lon="0.15392">
        <ele>620.1</ele>
        <time>2015-09-22T12:10:48Z</time>
      </trkpt>
      <trkpt lat="42.33916" lon="0.15396">
        <ele>619.5</ele>
        <time>2015-09-22T12:10:49Z</time>
      </trkpt>
      <trkpt lat="42.33921" lon="0.154">
        <ele>618.9</ele>
        <time>2015-09-22T12:10:50Z</time>
      </trkpt>
      <trkpt lat="42.33927" lon="0.15404">
        <ele>618.4</ele>
        <time>2015-09-22T12:10:51Z</time>
      </trkpt>
      <trkpt lat="42.33932" lon="0.15407">
        <ele>618.1</ele>
        <time>2015-09-22T12:10:52Z</time>
      </trkpt>
      <trkpt lat="42.33937" lon="0.15413">
        <ele>617.4</ele>
        <time>2015-09-22T12:10:53Z</time>
      </trkpt>
      <trkpt lat="42.33942" lon="0.15418">
        <ele>616.7</ele>
        <time>2015-09-22T12:10:54Z</time>
      </trkpt>
      <trkpt lat="42.33947" lon="0.15423">
        <ele>616.2</ele>
        <time>2015-09-22T12:10:55Z</time>
      </trkpt>
      <trkpt lat="42.33952" lon="0.15426">
        <ele>615.9</ele>
        <time>2015-09-22T12:10:56Z</time>
      </trkpt>
      <trkpt lat="42.33957" lon="0.15429">
        <ele>615.9</ele>
        <time>2015-09-22T12:10:57Z</time>
      </trkpt>
      <trkpt lat="42.33962" lon="0.15431">
        <ele>614.8</ele>
        <time>2015-09-22T12:10:58Z</time>
      </trkpt>
      <trkpt lat="42.33967" lon="0.15434">
        <ele>613.4</ele>
        <time>2015-09-22T12:10:59Z</time>
      </trkpt>
      <trkpt lat="42.33971" lon="0.15436">
        <ele>612.4</ele>
        <time>2015-09-22T12:11:00Z</time>
      </trkpt>
      <trkpt lat="42.33975" lon="0.15438">
        <ele>611.4</ele>
        <time>2015-09-22T12:11:01Z</time>
      </trkpt>
      <trkpt lat="42.33978" lon="0.1544">
        <ele>610.6</ele>
        <time>2015-09-22T12:11:02Z</time>
      </trkpt>
      <trkpt lat="42.33981" lon="0.15442">
        <ele>609.7</ele>
        <time>2015-09-22T12:11:03Z</time>
      </trkpt>
      <trkpt lat="42.33985" lon="0.15443">
        <ele>608.9</ele>
        <time>2015-09-22T12:11:04Z</time>
      </trkpt>
      <trkpt lat="42.33988" lon="0.15444">
        <ele>608.2</ele>
        <time>2015-09-22T12:11:05Z</time>
      </trkpt>
      <trkpt lat="42.33992" lon="0.15446">
        <ele>607.4</ele>
        <time>2015-09-22T12:11:06Z</time>
      </trkpt>
      <trkpt lat="42.33995" lon="0.15448">
        <ele>606.6</ele>
        <time>2015-09-22T12:11:07Z</time>
      </trkpt>
      <trkpt lat="42.33999" lon="0.1545">
        <ele>605.7</ele>
        <time>2015-09-22T12:11:08Z</time>
      </trkpt>
      <trkpt lat="42.34003" lon="0.15452">
        <ele>604.9</ele>
        <time>2015-09-22T12:11:09Z</time>
      </trkpt>
      <trkpt lat="42.34007" lon="0.15453">
        <ele>604.1</ele>
        <time>2015-09-22T12:11:10Z</time>
      </trkpt>
      <trkpt lat="42.34011" lon="0.15453">
        <ele>603.5</ele>
        <time>2015-09-22T12:11:11Z</time>
      </trkpt>
      <trkpt lat="42.34014" lon="0.15453">
        <ele>602.9</ele>
        <time>2015-09-22T12:11:12Z</time>
      </trkpt>
      <trkpt lat="42.34016" lon="0.1545">
        <ele>602.6</ele>
        <time>2015-09-22T12:11:13Z</time>
      </trkpt>
      <trkpt lat="42.34017" lon="0.15444">
        <ele>602.8</ele>
        <time>2015-09-22T12:11:15Z</time>
      </trkpt>
      <trkpt lat="42.34016" lon="0.15439">
        <ele>603.2</ele>
        <time>2015-09-22T12:11:17Z</time>
      </trkpt>
      <trkpt lat="42.34015" lon="0.15435">
        <ele>603.4</ele>
        <time>2015-09-22T12:11:19Z</time>
      </trkpt>
      <trkpt lat="42.34019" lon="0.15435">
        <ele>602.7</ele>
        <time>2015-09-22T12:11:40Z</time>
      </trkpt>
      <trkpt lat="42.34022" lon="0.15434">
        <ele>602</ele>
        <time>2015-09-22T12:11:41Z</time>
      </trkpt>
      <trkpt lat="42.34026" lon="0.15434">
        <ele>601.3</ele>
        <time>2015-09-22T12:11:42Z</time>
      </trkpt>
      <trkpt lat="42.34028" lon="0.15435">
        <ele>600.7</ele>
        <time>2015-09-22T12:11:43Z</time>
      </trkpt>
      <trkpt lat="42.34033" lon="0.15438">
        <ele>599.7</ele>
        <time>2015-09-22T12:11:45Z</time>
      </trkpt>
      <trkpt lat="42.34038" lon="0.1544">
        <ele>598.7</ele>
        <time>2015-09-22T12:11:47Z</time>
      </trkpt>
      <trkpt lat="42.34041" lon="0.15439">
        <ele>598.2</ele>
        <time>2015-09-22T12:11:48Z</time>
      </trkpt>
      <trkpt lat="42.34044" lon="0.15439">
        <ele>597.6</ele>
        <time>2015-09-22T12:11:49Z</time>
      </trkpt>
      <trkpt lat="42.34047" lon="0.15437">
        <ele>597.1</ele>
        <time>2015-09-22T12:11:50Z</time>
      </trkpt>
      <trkpt lat="42.34049" lon="0.15437">
        <ele>596.6</ele>
        <time>2015-09-22T12:11:51Z</time>
      </trkpt>
      <trkpt lat="42.34055" lon="0.15436">
        <ele>595.7</ele>
        <time>2015-09-22T12:11:53Z</time>
      </trkpt>
      <trkpt lat="42.3406" lon="0.15436">
        <ele>594.7</ele>
        <time>2015-09-22T12:11:55Z</time>
      </trkpt>
      <trkpt lat="42.34063" lon="0.15437">
        <ele>594.2</ele>
        <time>2015-09-22T12:11:56Z</time>
      </trkpt>
      <trkpt lat="42.34066" lon="0.15439">
        <ele>593.5</ele>
        <time>2015-09-22T12:11:57Z</time>
      </trkpt>
      <trkpt lat="42.3407" lon="0.15443">
        <ele>592.8</ele>
        <time>2015-09-22T12:11:58Z</time>
      </trkpt>
      <trkpt lat="42.34073" lon="0.15448">
        <ele>592.2</ele>
        <time>2015-09-22T12:11:59Z</time>
      </trkpt>
      <trkpt lat="42.34076" lon="0.15454">
        <ele>591.5</ele>
        <time>2015-09-22T12:12:00Z</time>
      </trkpt>
      <trkpt lat="42.34081" lon="0.15458">
        <ele>590.4</ele>
        <time>2015-09-22T12:12:01Z</time>
      </trkpt>
      <trkpt lat="42.34085" lon="0.15459">
        <ele>589.6</ele>
        <time>2015-09-22T12:12:02Z</time>
      </trkpt>
      <trkpt lat="42.34089" lon="0.15458">
        <ele>589</ele>
        <time>2015-09-22T12:12:03Z</time>
      </trkpt>
      <trkpt lat="42.34093" lon="0.15458">
        <ele>588.2</ele>
        <time>2015-09-22T12:12:04Z</time>
      </trkpt>
      <trkpt lat="42.34096" lon="0.15459">
        <ele>587.5</ele>
        <time>2015-09-22T12:12:06Z</time>
      </trkpt>
      <trkpt lat="42.341" lon="0.15462">
        <ele>586.5</ele>
        <time>2015-09-22T12:12:08Z</time>
      </trkpt>
      <trkpt lat="42.34105" lon="0.15466">
        <ele>585.3</ele>
        <time>2015-09-22T12:12:10Z</time>
      </trkpt>
      <trkpt lat="42.34108" lon="0.15467">
        <ele>584.6</ele>
        <time>2015-09-22T12:12:11Z</time>
      </trkpt>
      <trkpt lat="42.34111" lon="0.15467">
        <ele>584</ele>
        <time>2015-09-22T12:12:12Z</time>
      </trkpt>
      <trkpt lat="42.34114" lon="0.15467">
        <ele>583.4</ele>
        <time>2015-09-22T12:12:13Z</time>
      </trkpt>
      <trkpt lat="42.34117" lon="0.15467">
        <ele>582.8</ele>
        <time>2015-09-22T12:12:14Z</time>
      </trkpt>
      <trkpt lat="42.34121" lon="0.15467">
        <ele>582.1</ele>
        <time>2015-09-22T12:12:15Z</time>
      </trkpt>
      <trkpt lat="42.34124" lon="0.15468">
        <ele>581.3</ele>
        <time>2015-09-22T12:12:16Z</time>
      </trkpt>
      <trkpt lat="42.34127" lon="0.15471">
        <ele>580.8</ele>
        <time>2015-09-22T12:12:17Z</time>
      </trkpt>
      <trkpt lat="42.3413" lon="0.15474">
        <ele>580.4</ele>
        <time>2015-09-22T12:12:18Z</time>
      </trkpt>
      <trkpt lat="42.34132" lon="0.15477">
        <ele>580</ele>
        <time>2015-09-22T12:12:19Z</time>
      </trkpt>
      <trkpt lat="42.34135" lon="0.15479">
        <ele>579.7</ele>
        <time>2015-09-22T12:12:20Z</time>
      </trkpt>
      <trkpt lat="42.34138" lon="0.15481">
        <ele>579.3</ele>
        <time>2015-09-22T12:12:26Z</time>
      </trkpt>
      <trkpt lat="42.34142" lon="0.15483">
        <ele>578.8</ele>
        <time>2015-09-22T12:12:28Z</time>
      </trkpt>
      <trkpt lat="42.34146" lon="0.15486">
        <ele>578.4</ele>
        <time>2015-09-22T12:12:30Z</time>
      </trkpt>
      <trkpt lat="42.34149" lon="0.15489">
        <ele>577.9</ele>
        <time>2015-09-22T12:12:32Z</time>
      </trkpt>
      <trkpt lat="42.34151" lon="0.15491">
        <ele>577.6</ele>
        <time>2015-09-22T12:12:34Z</time>
      </trkpt>
      <trkpt lat="42.34154" lon="0.1549">
        <ele>577.5</ele>
        <time>2015-09-22T12:12:36Z</time>
      </trkpt>
      <trkpt lat="42.34157" lon="0.15489">
        <ele>577.4</ele>
        <time>2015-09-22T12:12:38Z</time>
      </trkpt>
      <trkpt lat="42.3416" lon="0.15489">
        <ele>577.1</ele>
        <time>2015-09-22T12:12:40Z</time>
      </trkpt>
      <trkpt lat="42.34163" lon="0.15492">
        <ele>576.8</ele>
        <time>2015-09-22T12:12:41Z</time>
      </trkpt>
      <trkpt lat="42.34166" lon="0.15494">
        <ele>576.4</ele>
        <time>2015-09-22T12:12:42Z</time>
      </trkpt>
      <trkpt lat="42.34168" lon="0.15496">
        <ele>576</ele>
        <time>2015-09-22T12:12:43Z</time>
      </trkpt>
      <trkpt lat="42.3417" lon="0.15498">
        <ele>575.7</ele>
        <time>2015-09-22T12:12:44Z</time>
      </trkpt>
      <trkpt lat="42.34173" lon="0.15499">
        <ele>575.4</ele>
        <time>2015-09-22T12:12:45Z</time>
      </trkpt>
      <trkpt lat="42.34178" lon="0.155">
        <ele>575</ele>
        <time>2015-09-22T12:12:47Z</time>
      </trkpt>
      <trkpt lat="42.34182" lon="0.15499">
        <ele>574.9</ele>
        <time>2015-09-22T12:12:51Z</time>
      </trkpt>
      <trkpt lat="42.34186" lon="0.15498">
        <ele>574.6</ele>
        <time>2015-09-22T12:12:53Z</time>
      </trkpt>
      <trkpt lat="42.34191" lon="0.15498">
        <ele>574.4</ele>
        <time>2015-09-22T12:12:55Z</time>
      </trkpt>
      <trkpt lat="42.34196" lon="0.15497">
        <ele>574.1</ele>
        <time>2015-09-22T12:12:57Z</time>
      </trkpt>
      <trkpt lat="42.342" lon="0.15497">
        <ele>573.8</ele>
        <time>2015-09-22T12:12:59Z</time>
      </trkpt>
      <trkpt lat="42.34204" lon="0.15498">
        <ele>573.5</ele>
        <time>2015-09-22T12:13:01Z</time>
      </trkpt>
      <trkpt lat="42.34208" lon="0.15499">
        <ele>573.1</ele>
        <time>2015-09-22T12:13:03Z</time>
      </trkpt>
      <trkpt lat="42.34212" lon="0.15503">
        <ele>572.1</ele>
        <time>2015-09-22T12:13:05Z</time>
      </trkpt>
      <trkpt lat="42.34215" lon="0.15506">
        <ele>571.6</ele>
        <time>2015-09-22T12:13:06Z</time>
      </trkpt>
      <trkpt lat="42.34217" lon="0.15509">
        <ele>571</ele>
        <time>2015-09-22T12:13:07Z</time>
      </trkpt>
      <trkpt lat="42.34221" lon="0.15512">
        <ele>570.2</ele>
        <time>2015-09-22T12:13:09Z</time>
      </trkpt>
      <trkpt lat="42.34224" lon="0.15514">
        <ele>569.6</ele>
        <time>2015-09-22T12:13:12Z</time>
      </trkpt>
      <trkpt lat="42.34227" lon="0.15514">
        <ele>569.2</ele>
        <time>2015-09-22T12:13:16Z</time>
      </trkpt>
      <trkpt lat="42.34229" lon="0.15517">
        <ele>568.7</ele>
        <time>2015-09-22T12:13:24Z</time>
      </trkpt>
      <trkpt lat="42.34232" lon="0.15518">
        <ele>568.3</ele>
        <time>2015-09-22T12:13:29Z</time>
      </trkpt>
      <trkpt lat="42.34234" lon="0.15518">
        <ele>568</ele>
        <time>2015-09-22T12:13:34Z</time>
      </trkpt>
      <trkpt lat="42.34236" lon="0.1552">
        <ele>567.5</ele>
        <time>2015-09-22T12:13:41Z</time>
      </trkpt>
      <trkpt lat="42.34236" lon="0.15524">
        <ele>567.2</ele>
        <time>2015-09-22T12:13:50Z</time>
      </trkpt>
      <trkpt lat="42.34239" lon="0.1553">
        <ele>566.5</ele>
        <time>2015-09-22T12:13:52Z</time>
      </trkpt>
      <trkpt lat="42.34242" lon="0.15536">
        <ele>565.8</ele>
        <time>2015-09-22T12:13:54Z</time>
      </trkpt>
      <trkpt lat="42.34244" lon="0.15542">
        <ele>565.1</ele>
        <time>2015-09-22T12:13:56Z</time>
      </trkpt>
      <trkpt lat="42.34247" lon="0.15547">
        <ele>564.7</ele>
        <time>2015-09-22T12:13:58Z</time>
      </trkpt>
      <trkpt lat="42.34251" lon="0.15549">
        <ele>564.2</ele>
        <time>2015-09-22T12:14:00Z</time>
      </trkpt>
      <trkpt lat="42.34254" lon="0.1555">
        <ele>563.9</ele>
        <time>2015-09-22T12:14:01Z</time>
      </trkpt>
      <trkpt lat="42.34257" lon="0.15551">
        <ele>563.6</ele>
        <time>2015-09-22T12:14:02Z</time>
      </trkpt>
      <trkpt lat="42.34262" lon="0.15552">
        <ele>563.1</ele>
        <time>2015-09-22T12:14:04Z</time>
      </trkpt>
      <trkpt lat="42.34265" lon="0.15554">
        <ele>562.8</ele>
        <time>2015-09-22T12:14:06Z</time>
      </trkpt>
      <trkpt lat="42.34268" lon="0.15556">
        <ele>562.5</ele>
        <time>2015-09-22T12:14:08Z</time>
      </trkpt>
      <trkpt lat="42.34271" lon="0.15562">
        <ele>562.2</ele>
        <time>2015-09-22T12:14:10Z</time>
      </trkpt>
      <trkpt lat="42.34274" lon="0.15565">
        <ele>561.9</ele>
        <time>2015-09-22T12:14:11Z</time>
      </trkpt>
      <trkpt lat="42.34277" lon="0.15568">
        <ele>561.6</ele>
        <time>2015-09-22T12:14:12Z</time>
      </trkpt>
      <trkpt lat="42.34282" lon="0.15571">
        <ele>561.2</ele>
        <time>2015-09-22T12:14:13Z</time>
      </trkpt>
      <trkpt lat="42.34288" lon="0.15574">
        <ele>560.7</ele>
        <time>2015-09-22T12:14:14Z</time>
      </trkpt>
      <trkpt lat="42.34292" lon="0.15577">
        <ele>560.4</ele>
        <time>2015-09-22T12:14:15Z</time>
      </trkpt>
      <trkpt lat="42.34296" lon="0.1558">
        <ele>560.6</ele>
        <time>2015-09-22T12:14:16Z</time>
      </trkpt>
      <trkpt lat="42.34299" lon="0.15585">
        <ele>560.7</ele>
        <time>2015-09-22T12:14:17Z</time>
      </trkpt>
      <trkpt lat="42.34301" lon="0.15589">
        <ele>560.7</ele>
        <time>2015-09-22T12:14:18Z</time>
      </trkpt>
      <trkpt lat="42.34302" lon="0.15595">
        <ele>560.8</ele>
        <time>2015-09-22T12:14:19Z</time>
      </trkpt>
      <trkpt lat="42.34303" lon="0.156">
        <ele>560.8</ele>
        <time>2015-09-22T12:14:20Z</time>
      </trkpt>
      <trkpt lat="42.34304" lon="0.15604">
        <ele>560.8</ele>
        <time>2015-09-22T12:14:21Z</time>
      </trkpt>
      <trkpt lat="42.34306" lon="0.15609">
        <ele>560.8</ele>
        <time>2015-09-22T12:14:22Z</time>
      </trkpt>
      <trkpt lat="42.34308" lon="0.15613">
        <ele>560.8</ele>
        <time>2015-09-22T12:14:23Z</time>
      </trkpt>
      <trkpt lat="42.3431" lon="0.15617">
        <ele>560.8</ele>
        <time>2015-09-22T12:14:24Z</time>
      </trkpt>
      <trkpt lat="42.34312" lon="0.1562">
        <ele>560.8</ele>
        <time>2015-09-22T12:14:25Z</time>
      </trkpt>
      <trkpt lat="42.34316" lon="0.15625">
        <ele>560.7</ele>
        <time>2015-09-22T12:14:27Z</time>
      </trkpt>
      <trkpt lat="42.34319" lon="0.15631">
        <ele>560.5</ele>
        <time>2015-09-22T12:14:29Z</time>
      </trkpt>
      <trkpt lat="42.34321" lon="0.15636">
        <ele>560.3</ele>
        <time>2015-09-22T12:14:31Z</time>
      </trkpt>
      <trkpt lat="42.34323" lon="0.15641">
        <ele>560.1</ele>
        <time>2015-09-22T12:14:33Z</time>
      </trkpt>
      <trkpt lat="42.34326" lon="0.15647">
        <ele>559.9</ele>
        <time>2015-09-22T12:14:35Z</time>
      </trkpt>
      <trkpt lat="42.34329" lon="0.1565">
        <ele>559.7</ele>
        <time>2015-09-22T12:14:36Z</time>
      </trkpt>
      <trkpt lat="42.34332" lon="0.15653">
        <ele>559.5</ele>
        <time>2015-09-22T12:14:37Z</time>
      </trkpt>
      <trkpt lat="42.34335" lon="0.15657">
        <ele>559.3</ele>
        <time>2015-09-22T12:14:38Z</time>
      </trkpt>
      <trkpt lat="42.34338" lon="0.1566">
        <ele>559.1</ele>
        <time>2015-09-22T12:14:39Z</time>
      </trkpt>
      <trkpt lat="42.34341" lon="0.15664">
        <ele>558.8</ele>
        <time>2015-09-22T12:14:40Z</time>
      </trkpt>
      <trkpt lat="42.34344" lon="0.15668">
        <ele>558.6</ele>
        <time>2015-09-22T12:14:41Z</time>
      </trkpt>
      <trkpt lat="42.34346" lon="0.15673">
        <ele>558.3</ele>
        <time>2015-09-22T12:14:42Z</time>
      </trkpt>
      <trkpt lat="42.34347" lon="0.15678">
        <ele>558</ele>
        <time>2015-09-22T12:14:43Z</time>
      </trkpt>
      <trkpt lat="42.34347" lon="0.15683">
        <ele>557.8</ele>
        <time>2015-09-22T12:14:44Z</time>
      </trkpt>
      <trkpt lat="42.34347" lon="0.15688">
        <ele>557.6</ele>
        <time>2015-09-22T12:14:45Z</time>
      </trkpt>
      <trkpt lat="42.34347" lon="0.15692">
        <ele>557.4</ele>
        <time>2015-09-22T12:14:46Z</time>
      </trkpt>
      <trkpt lat="42.34348" lon="0.15697">
        <ele>557.1</ele>
        <time>2015-09-22T12:14:47Z</time>
      </trkpt>
      <trkpt lat="42.3435" lon="0.157">
        <ele>556.9</ele>
        <time>2015-09-22T12:14:48Z</time>
      </trkpt>
      <trkpt lat="42.34352" lon="0.15703">
        <ele>556.6</ele>
        <time>2015-09-22T12:14:49Z</time>
      </trkpt>
      <trkpt lat="42.34355" lon="0.15705">
        <ele>556.3</ele>
        <time>2015-09-22T12:14:50Z</time>
      </trkpt>
      <trkpt lat="42.34358" lon="0.15708">
        <ele>556.1</ele>
        <time>2015-09-22T12:14:51Z</time>
      </trkpt>
      <trkpt lat="42.3436" lon="0.1571">
        <ele>555.8</ele>
        <time>2015-09-22T12:14:52Z</time>
      </trkpt>
      <trkpt lat="42.34363" lon="0.15713">
        <ele>555.5</ele>
        <time>2015-09-22T12:14:53Z</time>
      </trkpt>
      <trkpt lat="42.34365" lon="0.15716">
        <ele>555.2</ele>
        <time>2015-09-22T12:14:54Z</time>
      </trkpt>
      <trkpt lat="42.34367" lon="0.1572">
        <ele>554.9</ele>
        <time>2015-09-22T12:14:55Z</time>
      </trkpt>
      <trkpt lat="42.3437" lon="0.15723">
        <ele>554.6</ele>
        <time>2015-09-22T12:14:56Z</time>
      </trkpt>
      <trkpt lat="42.34371" lon="0.15727">
        <ele>554.3</ele>
        <time>2015-09-22T12:14:57Z</time>
      </trkpt>
      <trkpt lat="42.34373" lon="0.15731">
        <ele>554</ele>
        <time>2015-09-22T12:14:58Z</time>
      </trkpt>
      <trkpt lat="42.34375" lon="0.15735">
        <ele>553.7</ele>
        <time>2015-09-22T12:14:59Z</time>
      </trkpt>
      <trkpt lat="42.34377" lon="0.15739">
        <ele>553.7</ele>
        <time>2015-09-22T12:15:00Z</time>
      </trkpt>
      <trkpt lat="42.34379" lon="0.15743">
        <ele>553.7</ele>
        <time>2015-09-22T12:15:01Z</time>
      </trkpt>
      <trkpt lat="42.3438" lon="0.15748">
        <ele>553.7</ele>
        <time>2015-09-22T12:15:02Z</time>
      </trkpt>
      <trkpt lat="42.34382" lon="0.15752">
        <ele>553.7</ele>
        <time>2015-09-22T12:15:03Z</time>
      </trkpt>
      <trkpt lat="42.34384" lon="0.15756">
        <ele>553.7</ele>
        <time>2015-09-22T12:15:04Z</time>
      </trkpt>
      <trkpt lat="42.34386" lon="0.1576">
        <ele>553.7</ele>
        <time>2015-09-22T12:15:05Z</time>
      </trkpt>
      <trkpt lat="42.34388" lon="0.15764">
        <ele>553.7</ele>
        <time>2015-09-22T12:15:06Z</time>
      </trkpt>
      <trkpt lat="42.3439" lon="0.15769">
        <ele>553.6</ele>
        <time>2015-09-22T12:15:07Z</time>
      </trkpt>
      <trkpt lat="42.34391" lon="0.15773">
        <ele>553.6</ele>
        <time>2015-09-22T12:15:08Z</time>
      </trkpt>
      <trkpt lat="42.34392" lon="0.15779">
        <ele>553.4</ele>
        <time>2015-09-22T12:15:10Z</time>
      </trkpt>
      <trkpt lat="42.3439" lon="0.15785">
        <ele>552.9</ele>
        <time>2015-09-22T12:15:12Z</time>
      </trkpt>
      <trkpt lat="42.34388" lon="0.1579">
        <ele>552.5</ele>
        <time>2015-09-22T12:15:14Z</time>
      </trkpt>
      <trkpt lat="42.34386" lon="0.15794">
        <ele>552.3</ele>
        <time>2015-09-22T12:15:16Z</time>
      </trkpt>
      <trkpt lat="42.34385" lon="0.15798">
        <ele>552.2</ele>
        <time>2015-09-22T12:15:18Z</time>
      </trkpt>
      <trkpt lat="42.34386" lon="0.15803">
        <ele>552.3</ele>
        <time>2015-09-22T12:15:20Z</time>
      </trkpt>
      <trkpt lat="42.34389" lon="0.15807">
        <ele>552.7</ele>
        <time>2015-09-22T12:15:22Z</time>
      </trkpt>
      <trkpt lat="42.34393" lon="0.15808">
        <ele>553.2</ele>
        <time>2015-09-22T12:15:24Z</time>
      </trkpt>
      <trkpt lat="42.34396" lon="0.15807">
        <ele>553.6</ele>
        <time>2015-09-22T12:15:26Z</time>
      </trkpt>
      <trkpt lat="42.344" lon="0.15805">
        <ele>553.9</ele>
        <time>2015-09-22T12:15:28Z</time>
      </trkpt>
      <trkpt lat="42.34402" lon="0.15802">
        <ele>554.2</ele>
        <time>2015-09-22T12:15:30Z</time>
      </trkpt>
      <trkpt lat="42.34405" lon="0.158">
        <ele>554.5</ele>
        <time>2015-09-22T12:15:32Z</time>
      </trkpt>
      <trkpt lat="42.34409" lon="0.15799">
        <ele>554.9</ele>
        <time>2015-09-22T12:15:34Z</time>
      </trkpt>
      <trkpt lat="42.34413" lon="0.15799">
        <ele>555.3</ele>
        <time>2015-09-22T12:15:36Z</time>
      </trkpt>
      <trkpt lat="42.34416" lon="0.158">
        <ele>555.7</ele>
        <time>2015-09-22T12:15:38Z</time>
      </trkpt>
      <trkpt lat="42.3442" lon="0.15801">
        <ele>556.2</ele>
        <time>2015-09-22T12:15:40Z</time>
      </trkpt>
      <trkpt lat="42.34423" lon="0.15802">
        <ele>556.6</ele>
        <time>2015-09-22T12:15:42Z</time>
      </trkpt>
      <trkpt lat="42.34426" lon="0.15801">
        <ele>557</ele>
        <time>2015-09-22T12:15:44Z</time>
      </trkpt>
      <trkpt lat="42.3443" lon="0.15801">
        <ele>557.4</ele>
        <time>2015-09-22T12:15:46Z</time>
      </trkpt>
      <trkpt lat="42.34433" lon="0.15801">
        <ele>557.8</ele>
        <time>2015-09-22T12:15:48Z</time>
      </trkpt>
      <trkpt lat="42.34437" lon="0.15802">
        <ele>558.2</ele>
        <time>2015-09-22T12:15:50Z</time>
      </trkpt>
      <trkpt lat="42.3444" lon="0.15802">
        <ele>558.6</ele>
        <time>2015-09-22T12:15:52Z</time>
      </trkpt>
      <trkpt lat="42.34444" lon="0.15801">
        <ele>559</ele>
        <time>2015-09-22T12:15:54Z</time>
      </trkpt>
      <trkpt lat="42.34447" lon="0.158">
        <ele>559.3</ele>
        <time>2015-09-22T12:15:56Z</time>
      </trkpt>
      <trkpt lat="42.34451" lon="0.15799">
        <ele>559.6</ele>
        <time>2015-09-22T12:15:58Z</time>
      </trkpt>
      <trkpt lat="42.34454" lon="0.15798">
        <ele>560</ele>
        <time>2015-09-22T12:16:00Z</time>
      </trkpt>
      <trkpt lat="42.34457" lon="0.15799">
        <ele>560.4</ele>
        <time>2015-09-22T12:16:02Z</time>
      </trkpt>
      <trkpt lat="42.3446" lon="0.15802">
        <ele>560.9</ele>
        <time>2015-09-22T12:16:04Z</time>
      </trkpt>
      <trkpt lat="42.34463" lon="0.15805">
        <ele>561.4</ele>
        <time>2015-09-22T12:16:06Z</time>
      </trkpt>
      <trkpt lat="42.34465" lon="0.15807">
        <ele>561.8</ele>
        <time>2015-09-22T12:16:08Z</time>
      </trkpt>
      <trkpt lat="42.34468" lon="0.15809">
        <ele>562.2</ele>
        <time>2015-09-22T12:16:10Z</time>
      </trkpt>
      <trkpt lat="42.34471" lon="0.15812">
        <ele>562.7</ele>
        <time>2015-09-22T12:16:12Z</time>
      </trkpt>
      <trkpt lat="42.34475" lon="0.15814">
        <ele>563.2</ele>
        <time>2015-09-22T12:16:14Z</time>
      </trkpt>
      <trkpt lat="42.34479" lon="0.15816">
        <ele>563.8</ele>
        <time>2015-09-22T12:16:16Z</time>
      </trkpt>
      <trkpt lat="42.34483" lon="0.15818">
        <ele>564.3</ele>
        <time>2015-09-22T12:16:18Z</time>
      </trkpt>
      <trkpt lat="42.34487" lon="0.15821">
        <ele>564.9</ele>
        <time>2015-09-22T12:16:20Z</time>
      </trkpt>
      <trkpt lat="42.34491" lon="0.15824">
        <ele>565.4</ele>
        <time>2015-09-22T12:16:22Z</time>
      </trkpt>
      <trkpt lat="42.34495" lon="0.15826">
        <ele>566</ele>
        <time>2015-09-22T12:16:24Z</time>
      </trkpt>
      <trkpt lat="42.345" lon="0.15828">
        <ele>566.6</ele>
        <time>2015-09-22T12:16:26Z</time>
      </trkpt>
      <trkpt lat="42.34503" lon="0.1583">
        <ele>567.1</ele>
        <time>2015-09-22T12:16:28Z</time>
      </trkpt>
      <trkpt lat="42.34507" lon="0.15832">
        <ele>567.6</ele>
        <time>2015-09-22T12:16:30Z</time>
      </trkpt>
      <trkpt lat="42.34511" lon="0.15834">
        <ele>568.1</ele>
        <time>2015-09-22T12:16:32Z</time>
      </trkpt>
      <trkpt lat="42.34516" lon="0.15835">
        <ele>568.6</ele>
        <time>2015-09-22T12:16:34Z</time>
      </trkpt>
      <trkpt lat="42.3452" lon="0.15837">
        <ele>569.1</ele>
        <time>2015-09-22T12:16:36Z</time>
      </trkpt>
      <trkpt lat="42.34524" lon="0.15838">
        <ele>569.6</ele>
        <time>2015-09-22T12:16:38Z</time>
      </trkpt>
      <trkpt lat="42.34528" lon="0.1584">
        <ele>570.2</ele>
        <time>2015-09-22T12:16:40Z</time>
      </trkpt>
      <trkpt lat="42.34532" lon="0.15842">
        <ele>570.7</ele>
        <time>2015-09-22T12:16:42Z</time>
      </trkpt>
      <trkpt lat="42.34536" lon="0.15844">
        <ele>571.2</ele>
        <time>2015-09-22T12:16:44Z</time>
      </trkpt>
      <trkpt lat="42.34539" lon="0.15847">
        <ele>571.7</ele>
        <time>2015-09-22T12:16:46Z</time>
      </trkpt>
      <trkpt lat="42.34542" lon="0.15851">
        <ele>572.3</ele>
        <time>2015-09-22T12:16:48Z</time>
      </trkpt>
      <trkpt lat="42.34544" lon="0.15856">
        <ele>572.8</ele>
        <time>2015-09-22T12:16:50Z</time>
      </trkpt>
      <trkpt lat="42.34546" lon="0.15862">
        <ele>573.3</ele>
        <time>2015-09-22T12:16:52Z</time>
      </trkpt>
      <trkpt lat="42.34545" lon="0.15868">
        <ele>573.8</ele>
        <time>2015-09-22T12:16:54Z</time>
      </trkpt>
      <trkpt lat="42.34544" lon="0.15876">
        <ele>574.2</ele>
        <time>2015-09-22T12:16:56Z</time>
      </trkpt>
      <trkpt lat="42.34543" lon="0.1588">
        <ele>574.1</ele>
        <time>2015-09-22T12:16:57Z</time>
      </trkpt>
      <trkpt lat="42.34543" lon="0.15884">
        <ele>574.1</ele>
        <time>2015-09-22T12:16:58Z</time>
      </trkpt>
      <trkpt lat="42.34543" lon="0.15889">
        <ele>574.1</ele>
        <time>2015-09-22T12:16:59Z</time>
      </trkpt>
      <trkpt lat="42.34543" lon="0.15893">
        <ele>574.1</ele>
        <time>2015-09-22T12:17:00Z</time>
      </trkpt>
      <trkpt lat="42.34543" lon="0.15897">
        <ele>574.1</ele>
        <time>2015-09-22T12:17:01Z</time>
      </trkpt>
      <trkpt lat="42.34544" lon="0.15901">
        <ele>574.1</ele>
        <time>2015-09-22T12:17:02Z</time>
      </trkpt>
      <trkpt lat="42.34545" lon="0.15905">
        <ele>574.2</ele>
        <time>2015-09-22T12:17:03Z</time>
      </trkpt>
      <trkpt lat="42.34547" lon="0.15909">
        <ele>574.3</ele>
        <time>2015-09-22T12:17:04Z</time>
      </trkpt>
      <trkpt lat="42.34548" lon="0.15912">
        <ele>574.4</ele>
        <time>2015-09-22T12:17:05Z</time>
      </trkpt>
      <trkpt lat="42.34551" lon="0.15915">
        <ele>574.5</ele>
        <time>2015-09-22T12:17:42Z</time>
      </trkpt>
      <trkpt lat="42.34553" lon="0.15918">
        <ele>574.7</ele>
        <time>2015-09-22T12:17:44Z</time>
      </trkpt>
      <trkpt lat="42.34556" lon="0.15921">
        <ele>574.8</ele>
        <time>2015-09-22T12:17:46Z</time>
      </trkpt>
      <trkpt lat="42.34558" lon="0.15925">
        <ele>575</ele>
        <time>2015-09-22T12:17:48Z</time>
      </trkpt>
      <trkpt lat="42.34562" lon="0.15928">
        <ele>575.1</ele>
        <time>2015-09-22T12:17:50Z</time>
      </trkpt>
      <trkpt lat="42.34565" lon="0.1593">
        <ele>575.3</ele>
        <time>2015-09-22T12:17:52Z</time>
      </trkpt>
      <trkpt lat="42.34569" lon="0.15932">
        <ele>575.5</ele>
        <time>2015-09-22T12:17:54Z</time>
      </trkpt>
      <trkpt lat="42.34572" lon="0.15933">
        <ele>575.7</ele>
        <time>2015-09-22T12:17:56Z</time>
      </trkpt>
      <trkpt lat="42.34576" lon="0.15935">
        <ele>575.9</ele>
        <time>2015-09-22T12:17:58Z</time>
      </trkpt>
      <trkpt lat="42.3458" lon="0.15937">
        <ele>576.1</ele>
        <time>2015-09-22T12:18:00Z</time>
      </trkpt>
      <trkpt lat="42.34583" lon="0.15942">
        <ele>576.2</ele>
        <time>2015-09-22T12:18:02Z</time>
      </trkpt>
      <trkpt lat="42.34584" lon="0.15947">
        <ele>576.2</ele>
        <time>2015-09-22T12:18:04Z</time>
      </trkpt>
      <trkpt lat="42.34584" lon="0.15951">
        <ele>576.1</ele>
        <time>2015-09-22T12:18:06Z</time>
      </trkpt>
      <trkpt lat="42.34582" lon="0.15954">
        <ele>576</ele>
        <time>2015-09-22T12:18:08Z</time>
      </trkpt>
      <trkpt lat="42.34579" lon="0.15955">
        <ele>575.8</ele>
        <time>2015-09-22T12:18:11Z</time>
      </trkpt>
      <trkpt lat="42.34576" lon="0.15954">
        <ele>575.7</ele>
        <time>2015-09-22T12:18:14Z</time>
      </trkpt>
      <trkpt lat="42.34576" lon="0.15959">
        <ele>575.6</ele>
        <time>2015-09-22T12:18:19Z</time>
      </trkpt>
      <trkpt lat="42.34579" lon="0.15956">
        <ele>575.8</ele>
        <time>2015-09-22T12:18:23Z</time>
      </trkpt>
      <trkpt lat="42.34582" lon="0.15958">
        <ele>575.9</ele>
        <time>2015-09-22T12:18:27Z</time>
      </trkpt>
      <trkpt lat="42.34584" lon="0.15961">
        <ele>576.1</ele>
        <time>2015-09-22T12:18:34Z</time>
      </trkpt>
      <trkpt lat="42.34587" lon="0.15968">
        <ele>576.3</ele>
        <time>2015-09-22T12:19:24Z</time>
      </trkpt>
      <trkpt lat="42.34586" lon="0.15972">
        <ele>576.4</ele>
        <time>2015-09-22T12:19:26Z</time>
      </trkpt>
      <trkpt lat="42.34584" lon="0.15979">
        <ele>576.4</ele>
        <time>2015-09-22T12:19:28Z</time>
      </trkpt>
      <trkpt lat="42.34584" lon="0.15982">
        <ele>576.5</ele>
        <time>2015-09-22T12:19:29Z</time>
      </trkpt>
      <trkpt lat="42.34585" lon="0.1599">
        <ele>576.6</ele>
        <time>2015-09-22T12:19:31Z</time>
      </trkpt>
      <trkpt lat="42.34586" lon="0.15996">
        <ele>576.8</ele>
        <time>2015-09-22T12:19:33Z</time>
      </trkpt>
      <trkpt lat="42.34586" lon="0.16003">
        <ele>576.9</ele>
        <time>2015-09-22T12:19:35Z</time>
      </trkpt>
      <trkpt lat="42.34586" lon="0.16007">
        <ele>576.9</ele>
        <time>2015-09-22T12:19:36Z</time>
      </trkpt>
      <trkpt lat="42.34585" lon="0.1601">
        <ele>577</ele>
        <time>2015-09-22T12:19:37Z</time>
      </trkpt>
      <trkpt lat="42.34583" lon="0.16016">
        <ele>577</ele>
        <time>2015-09-22T12:19:39Z</time>
      </trkpt>
      <trkpt lat="42.34581" lon="0.1602">
        <ele>577.1</ele>
        <time>2015-09-22T12:19:41Z</time>
      </trkpt>
      <trkpt lat="42.34579" lon="0.16023">
        <ele>577.1</ele>
        <time>2015-09-22T12:19:43Z</time>
      </trkpt>
      <trkpt lat="42.34579" lon="0.16028">
        <ele>577.2</ele>
        <time>2015-09-22T12:19:46Z</time>
      </trkpt>
      <trkpt lat="42.34582" lon="0.1603">
        <ele>577.3</ele>
        <time>2015-09-22T12:19:48Z</time>
      </trkpt>
      <trkpt lat="42.34585" lon="0.16032">
        <ele>577.4</ele>
        <time>2015-09-22T12:19:49Z</time>
      </trkpt>
      <trkpt lat="42.34588" lon="0.16034">
        <ele>577.4</ele>
        <time>2015-09-22T12:19:50Z</time>
      </trkpt>
      <trkpt lat="42.34591" lon="0.16036">
        <ele>577.5</ele>
        <time>2015-09-22T12:19:51Z</time>
      </trkpt>
      <trkpt lat="42.34594" lon="0.16036">
        <ele>577.5</ele>
        <time>2015-09-22T12:19:52Z</time>
      </trkpt>
      <trkpt lat="42.34598" lon="0.16035">
        <ele>577.6</ele>
        <time>2015-09-22T12:19:54Z</time>
      </trkpt>
      <trkpt lat="42.34602" lon="0.16034">
        <ele>577.7</ele>
        <time>2015-09-22T12:19:56Z</time>
      </trkpt>
      <trkpt lat="42.34605" lon="0.16033">
        <ele>577.7</ele>
        <time>2015-09-22T12:19:58Z</time>
      </trkpt>
      <trkpt lat="42.34605" lon="0.16029">
        <ele>577.6</ele>
        <time>2015-09-22T12:20:00Z</time>
      </trkpt>
      <trkpt lat="42.34602" lon="0.1603">
        <ele>577.6</ele>
        <time>2015-09-22T12:20:03Z</time>
      </trkpt>
      <trkpt lat="42.34599" lon="0.16034">
        <ele>577.6</ele>
        <time>2015-09-22T12:20:09Z</time>
      </trkpt>
      <trkpt lat="42.34596" lon="0.16036">
        <ele>577.6</ele>
        <time>2015-09-22T12:20:11Z</time>
      </trkpt>
      <trkpt lat="42.34593" lon="0.16036">
        <ele>577.5</ele>
        <time>2015-09-22T12:20:13Z</time>
      </trkpt>
      <trkpt lat="42.3459" lon="0.16034">
        <ele>577.5</ele>
        <time>2015-09-22T12:20:15Z</time>
      </trkpt>
      <trkpt lat="42.34587" lon="0.16032">
        <ele>577.4</ele>
        <time>2015-09-22T12:20:17Z</time>
      </trkpt>
      <trkpt lat="42.34583" lon="0.1603">
        <ele>577.3</ele>
        <time>2015-09-22T12:20:19Z</time>
      </trkpt>
      <trkpt lat="42.34581" lon="0.16027">
        <ele>577.2</ele>
        <time>2015-09-22T12:20:21Z</time>
      </trkpt>
      <trkpt lat="42.34578" lon="0.16024">
        <ele>577.1</ele>
        <time>2015-09-22T12:20:23Z</time>
      </trkpt>
      <trkpt lat="42.34575" lon="0.16023">
        <ele>577</ele>
        <time>2015-09-22T12:20:25Z</time>
      </trkpt>
      <trkpt lat="42.34572" lon="0.16026">
        <ele>577</ele>
        <time>2015-09-22T12:20:27Z</time>
      </trkpt>
      <trkpt lat="42.3457" lon="0.1603">
        <ele>577.1</ele>
        <time>2015-09-22T12:20:29Z</time>
      </trkpt>
      <trkpt lat="42.34568" lon="0.16037">
        <ele>577.2</ele>
        <time>2015-09-22T12:20:31Z</time>
      </trkpt>
      <trkpt lat="42.34568" lon="0.16041">
        <ele>577.3</ele>
        <time>2015-09-22T12:20:32Z</time>
      </trkpt>
      <trkpt lat="42.34567" lon="0.16047">
        <ele>577.2</ele>
        <time>2015-09-22T12:20:34Z</time>
      </trkpt>
      <trkpt lat="42.34564" lon="0.16053">
        <ele>577.1</ele>
        <time>2015-09-22T12:20:36Z</time>
      </trkpt>
      <trkpt lat="42.34562" lon="0.16056">
        <ele>577</ele>
        <time>2015-09-22T12:20:37Z</time>
      </trkpt>
      <trkpt lat="42.34559" lon="0.16059">
        <ele>576.9</ele>
        <time>2015-09-22T12:20:38Z</time>
      </trkpt>
      <trkpt lat="42.34556" lon="0.16061">
        <ele>576.9</ele>
        <time>2015-09-22T12:20:39Z</time>
      </trkpt>
      <trkpt lat="42.34553" lon="0.16064">
        <ele>576.8</ele>
        <time>2015-09-22T12:20:40Z</time>
      </trkpt>
      <trkpt lat="42.34551" lon="0.16066">
        <ele>576.8</ele>
        <time>2015-09-22T12:20:41Z</time>
      </trkpt>
      <trkpt lat="42.34547" lon="0.16071">
        <ele>576.7</ele>
        <time>2015-09-22T12:20:43Z</time>
      </trkpt>
      <trkpt lat="42.34543" lon="0.16075">
        <ele>576.6</ele>
        <time>2015-09-22T12:20:45Z</time>
      </trkpt>
      <trkpt lat="42.34539" lon="0.1608">
        <ele>576.2</ele>
        <time>2015-09-22T12:20:47Z</time>
      </trkpt>
      <trkpt lat="42.34536" lon="0.16084">
        <ele>575.7</ele>
        <time>2015-09-22T12:20:49Z</time>
      </trkpt>
      <trkpt lat="42.34532" lon="0.16088">
        <ele>575.1</ele>
        <time>2015-09-22T12:20:51Z</time>
      </trkpt>
      <trkpt lat="42.34528" lon="0.16091">
        <ele>574.5</ele>
        <time>2015-09-22T12:20:53Z</time>
      </trkpt>
      <trkpt lat="42.34525" lon="0.16096">
        <ele>574.1</ele>
        <time>2015-09-22T12:20:55Z</time>
      </trkpt>
      <trkpt lat="42.34523" lon="0.161">
        <ele>573.8</ele>
        <time>2015-09-22T12:20:56Z</time>
      </trkpt>
      <trkpt lat="42.34521" lon="0.16105">
        <ele>573.5</ele>
        <time>2015-09-22T12:20:58Z</time>
      </trkpt>
      <trkpt lat="42.3452" lon="0.16108">
        <ele>573.3</ele>
        <time>2015-09-22T12:21:00Z</time>
      </trkpt>
      <trkpt lat="42.34518" lon="0.16113">
        <ele>573.1</ele>
        <time>2015-09-22T12:21:03Z</time>
      </trkpt>
      <trkpt lat="42.34519" lon="0.16119">
        <ele>573.2</ele>
        <time>2015-09-22T12:21:05Z</time>
      </trkpt>
      <trkpt lat="42.3452" lon="0.16124">
        <ele>573.4</ele>
        <time>2015-09-22T12:21:07Z</time>
      </trkpt>
      <trkpt lat="42.34523" lon="0.16127">
        <ele>573.6</ele>
        <time>2015-09-22T12:21:09Z</time>
      </trkpt>
      <trkpt lat="42.34525" lon="0.1613">
        <ele>573.8</ele>
        <time>2015-09-22T12:21:11Z</time>
      </trkpt>
      <trkpt lat="42.34526" lon="0.16134">
        <ele>573.8</ele>
        <time>2015-09-22T12:21:13Z</time>
      </trkpt>
      <trkpt lat="42.34524" lon="0.16139">
        <ele>573.4</ele>
        <time>2015-09-22T12:21:15Z</time>
      </trkpt>
      <trkpt lat="42.34522" lon="0.16142">
        <ele>573</ele>
        <time>2015-09-22T12:21:17Z</time>
      </trkpt>
      <trkpt lat="42.34521" lon="0.16145">
        <ele>572.7</ele>
        <time>2015-09-22T12:21:29Z</time>
      </trkpt>
      <trkpt lat="42.3452" lon="0.16149">
        <ele>572.4</ele>
        <time>2015-09-22T12:21:37Z</time>
      </trkpt>
      <trkpt lat="42.34517" lon="0.16149">
        <ele>572</ele>
        <time>2015-09-22T12:21:47Z</time>
      </trkpt>
      <trkpt lat="42.3452" lon="0.16149">
        <ele>572.4</ele>
        <time>2015-09-22T12:22:06Z</time>
      </trkpt>
    </trkseg>
  </trk>
  <trk>
    <name><![CDATA[Ainsa 16]]></name>
    <extensions>
      <line xmlns="http://www.topografix.com/GPX/gpx_style/0/2">
        <color>888800</color>
        <width>4</width>
      </line>
    </extensions>
    <trkseg>
      <trkpt lat="42.30693" lon="0.04185">
        <ele>851</ele>
        <time>2015-09-24T08:13:46Z</time>
      </trkpt>
      <trkpt lat="42.30696" lon="0.04184">
        <ele>850.9</ele>
        <time>2015-09-24T08:14:00Z</time>
      </trkpt>
      <trkpt lat="42.307" lon="0.04184">
        <ele>850.7</ele>
        <time>2015-09-24T08:14:04Z</time>
      </trkpt>
      <trkpt lat="42.30704" lon="0.04185">
        <ele>850.4</ele>
        <time>2015-09-24T08:14:07Z</time>
      </trkpt>
      <trkpt lat="42.30706" lon="0.04187">
        <ele>850.1</ele>
        <time>2015-09-24T08:14:09Z</time>
      </trkpt>
      <trkpt lat="42.30709" lon="0.0419">
        <ele>849.9</ele>
        <time>2015-09-24T08:14:11Z</time>
      </trkpt>
      <trkpt lat="42.30711" lon="0.04192">
        <ele>849.7</ele>
        <time>2015-09-24T08:14:13Z</time>
      </trkpt>
      <trkpt lat="42.30714" lon="0.04196">
        <ele>849.5</ele>
        <time>2015-09-24T08:14:16Z</time>
      </trkpt>
      <trkpt lat="42.30715" lon="0.04199">
        <ele>849.3</ele>
        <time>2015-09-24T08:14:18Z</time>
      </trkpt>
      <trkpt lat="42.30717" lon="0.04202">
        <ele>849.2</ele>
        <time>2015-09-24T08:14:20Z</time>
      </trkpt>
      <trkpt lat="42.30718" lon="0.04208">
        <ele>848.9</ele>
        <time>2015-09-24T08:14:23Z</time>
      </trkpt>
      <trkpt lat="42.30719" lon="0.04213">
        <ele>848.8</ele>
        <time>2015-09-24T08:14:25Z</time>
      </trkpt>
      <trkpt lat="42.30719" lon="0.0422">
        <ele>848.6</ele>
        <time>2015-09-24T08:14:27Z</time>
      </trkpt>
      <trkpt lat="42.30719" lon="0.04224">
        <ele>848.5</ele>
        <time>2015-09-24T08:14:28Z</time>
      </trkpt>
      <trkpt lat="42.30719" lon="0.04228">
        <ele>848.4</ele>
        <time>2015-09-24T08:14:29Z</time>
      </trkpt>
      <trkpt lat="42.30718" lon="0.04232">
        <ele>848.3</ele>
        <time>2015-09-24T08:14:30Z</time>
      </trkpt>
      <trkpt lat="42.30719" lon="0.04237">
        <ele>848.2</ele>
        <time>2015-09-24T08:14:31Z</time>
      </trkpt>
      <trkpt lat="42.30719" lon="0.04242">
        <ele>848.1</ele>
        <time>2015-09-24T08:14:32Z</time>
      </trkpt>
      <trkpt lat="42.30719" lon="0.04246">
        <ele>848</ele>
        <time>2015-09-24T08:14:33Z</time>
      </trkpt>
      <trkpt lat="42.30719" lon="0.04251">
        <ele>847.9</ele>
        <time>2015-09-24T08:14:34Z</time>
      </trkpt>
      <trkpt lat="42.3072" lon="0.04257">
        <ele>847.8</ele>
        <time>2015-09-24T08:14:35Z</time>
      </trkpt>
      <trkpt lat="42.3072" lon="0.04263">
        <ele>847.6</ele>
        <time>2015-09-24T08:14:36Z</time>
      </trkpt>
      <trkpt lat="42.30721" lon="0.04269">
        <ele>847.5</ele>
        <time>2015-09-24T08:14:37Z</time>
      </trkpt>
      <trkpt lat="42.30721" lon="0.04275">
        <ele>847.4</ele>
        <time>2015-09-24T08:14:38Z</time>
      </trkpt>
      <trkpt lat="42.30722" lon="0.04281">
        <ele>847.2</ele>
        <time>2015-09-24T08:14:39Z</time>
      </trkpt>
      <trkpt lat="42.30722" lon="0.04287">
        <ele>847.1</ele>
        <time>2015-09-24T08:14:40Z</time>
      </trkpt>
      <trkpt lat="42.30723" lon="0.04293">
        <ele>847</ele>
        <time>2015-09-24T08:14:41Z</time>
      </trkpt>
      <trkpt lat="42.30724" lon="0.043">
        <ele>846.7</ele>
        <time>2015-09-24T08:14:42Z</time>
      </trkpt>
      <trkpt lat="42.30724" lon="0.04306">
        <ele>846.5</ele>
        <time>2015-09-24T08:14:43Z</time>
      </trkpt>
      <trkpt lat="42.30725" lon="0.04312">
        <ele>846.4</ele>
        <time>2015-09-24T08:14:44Z</time>
      </trkpt>
      <trkpt lat="42.30725" lon="0.04319">
        <ele>846.2</ele>
        <time>2015-09-24T08:14:45Z</time>
      </trkpt>
      <trkpt lat="42.30725" lon="0.04325">
        <ele>846</ele>
        <time>2015-09-24T08:14:46Z</time>
      </trkpt>
      <trkpt lat="42.30724" lon="0.04331">
        <ele>845.8</ele>
        <time>2015-09-24T08:14:47Z</time>
      </trkpt>
      <trkpt lat="42.30724" lon="0.04338">
        <ele>845.5</ele>
        <time>2015-09-24T08:14:48Z</time>
      </trkpt>
      <trkpt lat="42.30723" lon="0.04344">
        <ele>845.3</ele>
        <time>2015-09-24T08:14:49Z</time>
      </trkpt>
      <trkpt lat="42.30723" lon="0.04349">
        <ele>845.2</ele>
        <time>2015-09-24T08:14:50Z</time>
      </trkpt>
      <trkpt lat="42.30722" lon="0.04356">
        <ele>844.9</ele>
        <time>2015-09-24T08:14:51Z</time>
      </trkpt>
      <trkpt lat="42.30721" lon="0.04361">
        <ele>844.7</ele>
        <time>2015-09-24T08:14:52Z</time>
      </trkpt>
      <trkpt lat="42.3072" lon="0.04367">
        <ele>844.5</ele>
        <time>2015-09-24T08:14:53Z</time>
      </trkpt>
      <trkpt lat="42.30719" lon="0.04373">
        <ele>844.3</ele>
        <time>2015-09-24T08:14:54Z</time>
      </trkpt>
      <trkpt lat="42.30717" lon="0.04378">
        <ele>844.2</ele>
        <time>2015-09-24T08:14:55Z</time>
      </trkpt>
      <trkpt lat="42.30716" lon="0.04384">
        <ele>844.1</ele>
        <time>2015-09-24T08:14:56Z</time>
      </trkpt>
      <trkpt lat="42.30715" lon="0.0439">
        <ele>844</ele>
        <time>2015-09-24T08:14:57Z</time>
      </trkpt>
      <trkpt lat="42.30714" lon="0.04395">
        <ele>843.9</ele>
        <time>2015-09-24T08:14:58Z</time>
      </trkpt>
      <trkpt lat="42.30713" lon="0.04401">
        <ele>843.8</ele>
        <time>2015-09-24T08:14:59Z</time>
      </trkpt>
      <trkpt lat="42.30711" lon="0.04407">
        <ele>843.7</ele>
        <time>2015-09-24T08:15:00Z</time>
      </trkpt>
      <trkpt lat="42.3071" lon="0.04413">
        <ele>843.6</ele>
        <time>2015-09-24T08:15:01Z</time>
      </trkpt>
      <trkpt lat="42.30708" lon="0.04418">
        <ele>843.5</ele>
        <time>2015-09-24T08:15:02Z</time>
      </trkpt>
      <trkpt lat="42.30707" lon="0.04424">
        <ele>843.4</ele>
        <time>2015-09-24T08:15:03Z</time>
      </trkpt>
      <trkpt lat="42.30706" lon="0.04429">
        <ele>843.3</ele>
        <time>2015-09-24T08:15:04Z</time>
      </trkpt>
      <trkpt lat="42.30705" lon="0.04435">
        <ele>843.2</ele>
        <time>2015-09-24T08:15:05Z</time>
      </trkpt>
      <trkpt lat="42.30704" lon="0.0444">
        <ele>843.1</ele>
        <time>2015-09-24T08:15:06Z</time>
      </trkpt>
      <trkpt lat="42.30703" lon="0.04446">
        <ele>843</ele>
        <time>2015-09-24T08:15:07Z</time>
      </trkpt>
      <trkpt lat="42.30703" lon="0.04452">
        <ele>842.9</ele>
        <time>2015-09-24T08:15:08Z</time>
      </trkpt>
      <trkpt lat="42.30702" lon="0.04458">
        <ele>842.9</ele>
        <time>2015-09-24T08:15:09Z</time>
      </trkpt>
      <trkpt lat="42.30701" lon="0.04463">
        <ele>842.9</ele>
        <time>2015-09-24T08:15:10Z</time>
      </trkpt>
      <trkpt lat="42.30701" lon="0.04469">
        <ele>842.9</ele>
        <time>2015-09-24T08:15:11Z</time>
      </trkpt>
      <trkpt lat="42.307" lon="0.04476">
        <ele>843</ele>
        <time>2015-09-24T08:15:12Z</time>
      </trkpt>
      <trkpt lat="42.30699" lon="0.04482">
        <ele>843</ele>
        <time>2015-09-24T08:15:13Z</time>
      </trkpt>
      <trkpt lat="42.30699" lon="0.04488">
        <ele>843</ele>
        <time>2015-09-24T08:15:14Z</time>
      </trkpt>
      <trkpt lat="42.30698" lon="0.04494">
        <ele>843.1</ele>
        <time>2015-09-24T08:15:15Z</time>
      </trkpt>
      <trkpt lat="42.30697" lon="0.04501">
        <ele>843.1</ele>
        <time>2015-09-24T08:15:16Z</time>
      </trkpt>
      <trkpt lat="42.30696" lon="0.04507">
        <ele>843.1</ele>
        <time>2015-09-24T08:15:17Z</time>
      </trkpt>
      <trkpt lat="42.30695" lon="0.04513">
        <ele>843.1</ele>
        <time>2015-09-24T08:15:18Z</time>
      </trkpt>
      <trkpt lat="42.30695" lon="0.0452">
        <ele>843.2</ele>
        <time>2015-09-24T08:15:19Z</time>
      </trkpt>
      <trkpt lat="42.30694" lon="0.04527">
        <ele>843.2</ele>
        <time>2015-09-24T08:15:20Z</time>
      </trkpt>
      <trkpt lat="42.30693" lon="0.04534">
        <ele>843.2</ele>
        <time>2015-09-24T08:15:21Z</time>
      </trkpt>
      <trkpt lat="42.30692" lon="0.0454">
        <ele>843.2</ele>
        <time>2015-09-24T08:15:22Z</time>
      </trkpt>
      <trkpt lat="42.30692" lon="0.04548">
        <ele>843.3</ele>
        <time>2015-09-24T08:15:23Z</time>
      </trkpt>
      <trkpt lat="42.30692" lon="0.04555">
        <ele>843.3</ele>
        <time>2015-09-24T08:15:24Z</time>
      </trkpt>
      <trkpt lat="42.30692" lon="0.04562">
        <ele>843.4</ele>
        <time>2015-09-24T08:15:25Z</time>
      </trkpt>
      <trkpt lat="42.30693" lon="0.04568">
        <ele>843.5</ele>
        <time>2015-09-24T08:15:26Z</time>
      </trkpt>
      <trkpt lat="42.30694" lon="0.04575">
        <ele>843.6</ele>
        <time>2015-09-24T08:15:27Z</time>
      </trkpt>
      <trkpt lat="42.30695" lon="0.04582">
        <ele>843.8</ele>
        <time>2015-09-24T08:15:28Z</time>
      </trkpt>
      <trkpt lat="42.30695" lon="0.04589">
        <ele>843.8</ele>
        <time>2015-09-24T08:15:29Z</time>
      </trkpt>
      <trkpt lat="42.30695" lon="0.04595">
        <ele>843.9</ele>
        <time>2015-09-24T08:15:30Z</time>
      </trkpt>
      <trkpt lat="42.30695" lon="0.04602">
        <ele>844</ele>
        <time>2015-09-24T08:15:31Z</time>
      </trkpt>
      <trkpt lat="42.30694" lon="0.04608">
        <ele>844</ele>
        <time>2015-09-24T08:15:32Z</time>
      </trkpt>
      <trkpt lat="42.30694" lon="0.04614">
        <ele>844</ele>
        <time>2015-09-24T08:15:33Z</time>
      </trkpt>
      <trkpt lat="42.30694" lon="0.0462">
        <ele>844.1</ele>
        <time>2015-09-24T08:15:34Z</time>
      </trkpt>
      <trkpt lat="42.30693" lon="0.04627">
        <ele>844.1</ele>
        <time>2015-09-24T08:15:35Z</time>
      </trkpt>
      <trkpt lat="42.30692" lon="0.04633">
        <ele>844.2</ele>
        <time>2015-09-24T08:15:36Z</time>
      </trkpt>
      <trkpt lat="42.30692" lon="0.04638">
        <ele>844.2</ele>
        <time>2015-09-24T08:15:37Z</time>
      </trkpt>
      <trkpt lat="42.30691" lon="0.04644">
        <ele>844.3</ele>
        <time>2015-09-24T08:15:38Z</time>
      </trkpt>
      <trkpt lat="42.3069" lon="0.0465">
        <ele>844.4</ele>
        <time>2015-09-24T08:15:39Z</time>
      </trkpt>
      <trkpt lat="42.30689" lon="0.04656">
        <ele>844.5</ele>
        <time>2015-09-24T08:15:40Z</time>
      </trkpt>
      <trkpt lat="42.30688" lon="0.04661">
        <ele>844.5</ele>
        <time>2015-09-24T08:15:41Z</time>
      </trkpt>
      <trkpt lat="42.30687" lon="0.04667">
        <ele>844.6</ele>
        <time>2015-09-24T08:15:42Z</time>
      </trkpt>
      <trkpt lat="42.30685" lon="0.04672">
        <ele>844.7</ele>
        <time>2015-09-24T08:15:43Z</time>
      </trkpt>
      <trkpt lat="42.30684" lon="0.04678">
        <ele>844.7</ele>
        <time>2015-09-24T08:15:44Z</time>
      </trkpt>
      <trkpt lat="42.30683" lon="0.04683">
        <ele>844.8</ele>
        <time>2015-09-24T08:15:45Z</time>
      </trkpt>
      <trkpt lat="42.30682" lon="0.04689">
        <ele>844.9</ele>
        <time>2015-09-24T08:15:46Z</time>
      </trkpt>
      <trkpt lat="42.30681" lon="0.04694">
        <ele>845</ele>
        <time>2015-09-24T08:15:47Z</time>
      </trkpt>
      <trkpt lat="42.3068" lon="0.047">
        <ele>845.1</ele>
        <time>2015-09-24T08:15:48Z</time>
      </trkpt>
      <trkpt lat="42.3068" lon="0.04705">
        <ele>845.2</ele>
        <time>2015-09-24T08:15:49Z</time>
      </trkpt>
      <trkpt lat="42.30679" lon="0.0471">
        <ele>845.4</ele>
        <time>2015-09-24T08:15:50Z</time>
      </trkpt>
      <trkpt lat="42.30678" lon="0.04715">
        <ele>845.7</ele>
        <time>2015-09-24T08:15:51Z</time>
      </trkpt>
      <trkpt lat="42.30677" lon="0.0472">
        <ele>846</ele>
        <time>2015-09-24T08:15:52Z</time>
      </trkpt>
      <trkpt lat="42.30676" lon="0.04725">
        <ele>846.2</ele>
        <time>2015-09-24T08:15:53Z</time>
      </trkpt>
      <trkpt lat="42.30675" lon="0.0473">
        <ele>846.5</ele>
        <time>2015-09-24T08:15:54Z</time>
      </trkpt>
      <trkpt lat="42.30674" lon="0.04736">
        <ele>846.8</ele>
        <time>2015-09-24T08:15:55Z</time>
      </trkpt>
      <trkpt lat="42.30673" lon="0.0474">
        <ele>847.1</ele>
        <time>2015-09-24T08:15:56Z</time>
      </trkpt>
      <trkpt lat="42.30672" lon="0.04745">
        <ele>847.4</ele>
        <time>2015-09-24T08:15:57Z</time>
      </trkpt>
      <trkpt lat="42.30672" lon="0.0475">
        <ele>847.6</ele>
        <time>2015-09-24T08:15:58Z</time>
      </trkpt>
      <trkpt lat="42.30672" lon="0.04755">
        <ele>847.9</ele>
        <time>2015-09-24T08:15:59Z</time>
      </trkpt>
      <trkpt lat="42.30672" lon="0.04759">
        <ele>848.2</ele>
        <time>2015-09-24T08:16:00Z</time>
      </trkpt>
      <trkpt lat="42.30671" lon="0.04764">
        <ele>848.4</ele>
        <time>2015-09-24T08:16:01Z</time>
      </trkpt>
      <trkpt lat="42.3067" lon="0.04768">
        <ele>848.7</ele>
        <time>2015-09-24T08:16:02Z</time>
      </trkpt>
      <trkpt lat="42.3067" lon="0.04772">
        <ele>848.9</ele>
        <time>2015-09-24T08:16:03Z</time>
      </trkpt>
      <trkpt lat="42.30669" lon="0.04776">
        <ele>849.1</ele>
        <time>2015-09-24T08:16:04Z</time>
      </trkpt>
      <trkpt lat="42.30668" lon="0.04781">
        <ele>849.4</ele>
        <time>2015-09-24T08:16:05Z</time>
      </trkpt>
      <trkpt lat="42.30668" lon="0.04785">
        <ele>849.6</ele>
        <time>2015-09-24T08:16:06Z</time>
      </trkpt>
      <trkpt lat="42.30668" lon="0.04789">
        <ele>849.9</ele>
        <time>2015-09-24T08:16:07Z</time>
      </trkpt>
      <trkpt lat="42.30667" lon="0.04794">
        <ele>850.2</ele>
        <time>2015-09-24T08:16:08Z</time>
      </trkpt>
      <trkpt lat="42.30667" lon="0.04798">
        <ele>850.5</ele>
        <time>2015-09-24T08:16:09Z</time>
      </trkpt>
      <trkpt lat="42.30667" lon="0.04802">
        <ele>850.8</ele>
        <time>2015-09-24T08:16:10Z</time>
      </trkpt>
      <trkpt lat="42.30667" lon="0.04806">
        <ele>851</ele>
        <time>2015-09-24T08:16:11Z</time>
      </trkpt>
      <trkpt lat="42.30667" lon="0.0481">
        <ele>851.3</ele>
        <time>2015-09-24T08:16:12Z</time>
      </trkpt>
      <trkpt lat="42.30666" lon="0.04817">
        <ele>851.8</ele>
        <time>2015-09-24T08:16:14Z</time>
      </trkpt>
      <trkpt lat="42.30665" lon="0.04824">
        <ele>852.3</ele>
        <time>2015-09-24T08:16:16Z</time>
      </trkpt>
      <trkpt lat="42.30665" lon="0.04831">
        <ele>852.8</ele>
        <time>2015-09-24T08:16:18Z</time>
      </trkpt>
      <trkpt lat="42.30665" lon="0.04837">
        <ele>853.3</ele>
        <time>2015-09-24T08:16:20Z</time>
      </trkpt>
      <trkpt lat="42.30664" lon="0.04843">
        <ele>853.7</ele>
        <time>2015-09-24T08:16:22Z</time>
      </trkpt>
      <trkpt lat="42.30663" lon="0.0485">
        <ele>854.2</ele>
        <time>2015-09-24T08:16:24Z</time>
      </trkpt>
      <trkpt lat="42.30662" lon="0.04855">
        <ele>854.6</ele>
        <time>2015-09-24T08:16:26Z</time>
      </trkpt>
      <trkpt lat="42.30661" lon="0.04861">
        <ele>855.1</ele>
        <time>2015-09-24T08:16:28Z</time>
      </trkpt>
      <trkpt lat="42.30658" lon="0.04866">
        <ele>855.5</ele>
        <time>2015-09-24T08:16:30Z</time>
      </trkpt>
      <trkpt lat="42.30656" lon="0.0487">
        <ele>855.9</ele>
        <time>2015-09-24T08:16:32Z</time>
      </trkpt>
      <trkpt lat="42.30653" lon="0.04875">
        <ele>856.3</ele>
        <time>2015-09-24T08:16:34Z</time>
      </trkpt>
      <trkpt lat="42.3065" lon="0.04879">
        <ele>856.9</ele>
        <time>2015-09-24T08:16:36Z</time>
      </trkpt>
      <trkpt lat="42.30648" lon="0.04883">
        <ele>857.5</ele>
        <time>2015-09-24T08:16:38Z</time>
      </trkpt>
      <trkpt lat="42.30645" lon="0.04888">
        <ele>858.1</ele>
        <time>2015-09-24T08:16:40Z</time>
      </trkpt>
      <trkpt lat="42.30642" lon="0.04892">
        <ele>858.7</ele>
        <time>2015-09-24T08:16:42Z</time>
      </trkpt>
      <trkpt lat="42.3064" lon="0.04897">
        <ele>859.3</ele>
        <time>2015-09-24T08:16:44Z</time>
      </trkpt>
      <trkpt lat="42.30637" lon="0.04901">
        <ele>859.9</ele>
        <time>2015-09-24T08:16:46Z</time>
      </trkpt>
      <trkpt lat="42.30634" lon="0.04905">
        <ele>860.5</ele>
        <time>2015-09-24T08:16:48Z</time>
      </trkpt>
      <trkpt lat="42.30631" lon="0.04909">
        <ele>861</ele>
        <time>2015-09-24T08:16:50Z</time>
      </trkpt>
      <trkpt lat="42.30628" lon="0.04914">
        <ele>861.6</ele>
        <time>2015-09-24T08:16:52Z</time>
      </trkpt>
      <trkpt lat="42.30625" lon="0.04918">
        <ele>862.1</ele>
        <time>2015-09-24T08:16:54Z</time>
      </trkpt>
      <trkpt lat="42.30622" lon="0.04922">
        <ele>862.6</ele>
        <time>2015-09-24T08:16:56Z</time>
      </trkpt>
      <trkpt lat="42.30619" lon="0.04925">
        <ele>863</ele>
        <time>2015-09-24T08:16:58Z</time>
      </trkpt>
      <trkpt lat="42.30615" lon="0.04929">
        <ele>863.5</ele>
        <time>2015-09-24T08:17:00Z</time>
      </trkpt>
      <trkpt lat="42.30612" lon="0.04932">
        <ele>864</ele>
        <time>2015-09-24T08:17:02Z</time>
      </trkpt>
      <trkpt lat="42.30609" lon="0.04936">
        <ele>864.6</ele>
        <time>2015-09-24T08:17:04Z</time>
      </trkpt>
      <trkpt lat="42.30606" lon="0.0494">
        <ele>865.2</ele>
        <time>2015-09-24T08:17:06Z</time>
      </trkpt>
      <trkpt lat="42.30602" lon="0.04943">
        <ele>865.6</ele>
        <time>2015-09-24T08:17:08Z</time>
      </trkpt>
      <trkpt lat="42.30599" lon="0.04945">
        <ele>866.1</ele>
        <time>2015-09-24T08:17:10Z</time>
      </trkpt>
      <trkpt lat="42.30595" lon="0.04948">
        <ele>866.6</ele>
        <time>2015-09-24T08:17:12Z</time>
      </trkpt>
      <trkpt lat="42.30592" lon="0.04952">
        <ele>867.2</ele>
        <time>2015-09-24T08:17:14Z</time>
      </trkpt>
      <trkpt lat="42.30589" lon="0.04955">
        <ele>867.7</ele>
        <time>2015-09-24T08:17:16Z</time>
      </trkpt>
      <trkpt lat="42.30586" lon="0.04958">
        <ele>868.3</ele>
        <time>2015-09-24T08:17:18Z</time>
      </trkpt>
      <trkpt lat="42.30583" lon="0.04961">
        <ele>868.8</ele>
        <time>2015-09-24T08:17:20Z</time>
      </trkpt>
      <trkpt lat="42.3058" lon="0.04963">
        <ele>869.2</ele>
        <time>2015-09-24T08:17:22Z</time>
      </trkpt>
      <trkpt lat="42.30576" lon="0.04964">
        <ele>869.4</ele>
        <time>2015-09-24T08:17:24Z</time>
      </trkpt>
      <trkpt lat="42.30572" lon="0.04966">
        <ele>869.7</ele>
        <time>2015-09-24T08:17:26Z</time>
      </trkpt>
      <trkpt lat="42.30569" lon="0.04968">
        <ele>870.1</ele>
        <time>2015-09-24T08:17:28Z</time>
      </trkpt>
      <trkpt lat="42.30566" lon="0.0497">
        <ele>870.4</ele>
        <time>2015-09-24T08:17:30Z</time>
      </trkpt>
      <trkpt lat="42.30562" lon="0.04971">
        <ele>870.6</ele>
        <time>2015-09-24T08:17:32Z</time>
      </trkpt>
      <trkpt lat="42.30558" lon="0.04972">
        <ele>870.8</ele>
        <time>2015-09-24T08:17:34Z</time>
      </trkpt>
      <trkpt lat="42.30554" lon="0.04973">
        <ele>871</ele>
        <time>2015-09-24T08:17:36Z</time>
      </trkpt>
      <trkpt lat="42.3055" lon="0.04975">
        <ele>871.3</ele>
        <time>2015-09-24T08:17:38Z</time>
      </trkpt>
      <trkpt lat="42.30546" lon="0.04977">
        <ele>871.6</ele>
        <time>2015-09-24T08:17:40Z</time>
      </trkpt>
      <trkpt lat="42.30542" lon="0.04978">
        <ele>871.9</ele>
        <time>2015-09-24T08:17:42Z</time>
      </trkpt>
      <trkpt lat="42.30538" lon="0.04979">
        <ele>872.2</ele>
        <time>2015-09-24T08:17:44Z</time>
      </trkpt>
      <trkpt lat="42.30534" lon="0.04981">
        <ele>872.6</ele>
        <time>2015-09-24T08:17:46Z</time>
      </trkpt>
      <trkpt lat="42.3053" lon="0.04982">
        <ele>873.1</ele>
        <time>2015-09-24T08:17:48Z</time>
      </trkpt>
      <trkpt lat="42.30526" lon="0.04984">
        <ele>873.5</ele>
        <time>2015-09-24T08:17:50Z</time>
      </trkpt>
      <trkpt lat="42.30522" lon="0.04986">
        <ele>873.9</ele>
        <time>2015-09-24T08:17:52Z</time>
      </trkpt>
      <trkpt lat="42.30518" lon="0.04988">
        <ele>874.3</ele>
        <time>2015-09-24T08:17:54Z</time>
      </trkpt>
      <trkpt lat="42.30514" lon="0.0499">
        <ele>874.7</ele>
        <time>2015-09-24T08:17:56Z</time>
      </trkpt>
      <trkpt lat="42.3051" lon="0.04991">
        <ele>875</ele>
        <time>2015-09-24T08:17:58Z</time>
      </trkpt>
      <trkpt lat="42.30506" lon="0.04993">
        <ele>875.4</ele>
        <time>2015-09-24T08:18:00Z</time>
      </trkpt>
      <trkpt lat="42.30503" lon="0.04995">
        <ele>875.8</ele>
        <time>2015-09-24T08:18:02Z</time>
      </trkpt>
      <trkpt lat="42.30499" lon="0.04997">
        <ele>876.1</ele>
        <time>2015-09-24T08:18:04Z</time>
      </trkpt>
      <trkpt lat="42.30495" lon="0.04999">
        <ele>876.5</ele>
        <time>2015-09-24T08:18:06Z</time>
      </trkpt>
      <trkpt lat="42.30491" lon="0.05">
        <ele>876.8</ele>
        <time>2015-09-24T08:18:08Z</time>
      </trkpt>
      <trkpt lat="42.30487" lon="0.05002">
        <ele>877.1</ele>
        <time>2015-09-24T08:18:10Z</time>
      </trkpt>
      <trkpt lat="42.30483" lon="0.05003">
        <ele>877.4</ele>
        <time>2015-09-24T08:18:12Z</time>
      </trkpt>
      <trkpt lat="42.30477" lon="0.05005">
        <ele>877.7</ele>
        <time>2015-09-24T08:18:14Z</time>
      </trkpt>
      <trkpt lat="42.30474" lon="0.05007">
        <ele>877.9</ele>
        <time>2015-09-24T08:18:15Z</time>
      </trkpt>
      <trkpt lat="42.30471" lon="0.05008">
        <ele>878.1</ele>
        <time>2015-09-24T08:18:16Z</time>
      </trkpt>
      <trkpt lat="42.30468" lon="0.05009">
        <ele>878.3</ele>
        <time>2015-09-24T08:18:17Z</time>
      </trkpt>
      <trkpt lat="42.30466" lon="0.0501">
        <ele>878.5</ele>
        <time>2015-09-24T08:18:18Z</time>
      </trkpt>
      <trkpt lat="42.30463" lon="0.05012">
        <ele>878.7</ele>
        <time>2015-09-24T08:18:19Z</time>
      </trkpt>
      <trkpt lat="42.3046" lon="0.05014">
        <ele>878.9</ele>
        <time>2015-09-24T08:18:20Z</time>
      </trkpt>
      <trkpt lat="42.30457" lon="0.05017">
        <ele>879.2</ele>
        <time>2015-09-24T08:18:21Z</time>
      </trkpt>
      <trkpt lat="42.30455" lon="0.05019">
        <ele>879.6</ele>
        <time>2015-09-24T08:18:22Z</time>
      </trkpt>
      <trkpt lat="42.30452" lon="0.05022">
        <ele>880.1</ele>
        <time>2015-09-24T08:18:23Z</time>
      </trkpt>
      <trkpt lat="42.3045" lon="0.05025">
        <ele>880.4</ele>
        <time>2015-09-24T08:18:24Z</time>
      </trkpt>
      <trkpt lat="42.30447" lon="0.05029">
        <ele>880.8</ele>
        <time>2015-09-24T08:18:25Z</time>
      </trkpt>
      <trkpt lat="42.30446" lon="0.05033">
        <ele>881.1</ele>
        <time>2015-09-24T08:18:26Z</time>
      </trkpt>
      <trkpt lat="42.30444" lon="0.05038">
        <ele>881.4</ele>
        <time>2015-09-24T08:18:27Z</time>
      </trkpt>
      <trkpt lat="42.30444" lon="0.05042">
        <ele>881.6</ele>
        <time>2015-09-24T08:18:28Z</time>
      </trkpt>
      <trkpt lat="42.30443" lon="0.05047">
        <ele>881.6</ele>
        <time>2015-09-24T08:18:29Z</time>
      </trkpt>
      <trkpt lat="42.30442" lon="0.05051">
        <ele>881.6</ele>
        <time>2015-09-24T08:18:30Z</time>
      </trkpt>
      <trkpt lat="42.3044" lon="0.05054">
        <ele>881.8</ele>
        <time>2015-09-24T08:18:31Z</time>
      </trkpt>
      <trkpt lat="42.30436" lon="0.05055">
        <ele>882.1</ele>
        <time>2015-09-24T08:18:32Z</time>
      </trkpt>
      <trkpt lat="42.30432" lon="0.05055">
        <ele>882.5</ele>
        <time>2015-09-24T08:18:33Z</time>
      </trkpt>
      <trkpt lat="42.30428" lon="0.05053">
        <ele>882.9</ele>
        <time>2015-09-24T08:18:34Z</time>
      </trkpt>
      <trkpt lat="42.30424" lon="0.05052">
        <ele>883.3</ele>
        <time>2015-09-24T08:18:35Z</time>
      </trkpt>
      <trkpt lat="42.3042" lon="0.05051">
        <ele>883.8</ele>
        <time>2015-09-24T08:18:36Z</time>
      </trkpt>
      <trkpt lat="42.30417" lon="0.0505">
        <ele>884.2</ele>
        <time>2015-09-24T08:18:37Z</time>
      </trkpt>
      <trkpt lat="42.30413" lon="0.05049">
        <ele>884.6</ele>
        <time>2015-09-24T08:18:38Z</time>
      </trkpt>
      <trkpt lat="42.30409" lon="0.05048">
        <ele>885</ele>
        <time>2015-09-24T08:18:39Z</time>
      </trkpt>
      <trkpt lat="42.30406" lon="0.05048">
        <ele>885.3</ele>
        <time>2015-09-24T08:18:40Z</time>
      </trkpt>
      <trkpt lat="42.30403" lon="0.05048">
        <ele>885.7</ele>
        <time>2015-09-24T08:18:41Z</time>
      </trkpt>
      <trkpt lat="42.30399" lon="0.05048">
        <ele>886</ele>
        <time>2015-09-24T08:18:42Z</time>
      </trkpt>
      <trkpt lat="42.30396" lon="0.05048">
        <ele>886.4</ele>
        <time>2015-09-24T08:18:43Z</time>
      </trkpt>
      <trkpt lat="42.30393" lon="0.05048">
        <ele>886.7</ele>
        <time>2015-09-24T08:18:44Z</time>
      </trkpt>
      <trkpt lat="42.3039" lon="0.05049">
        <ele>886.9</ele>
        <time>2015-09-24T08:18:45Z</time>
      </trkpt>
      <trkpt lat="42.30387" lon="0.05049">
        <ele>887.2</ele>
        <time>2015-09-24T08:18:46Z</time>
      </trkpt>
      <trkpt lat="42.30383" lon="0.0505">
        <ele>887.5</ele>
        <time>2015-09-24T08:18:47Z</time>
      </trkpt>
      <trkpt lat="42.3038" lon="0.05051">
        <ele>887.7</ele>
        <time>2015-09-24T08:18:48Z</time>
      </trkpt>
      <trkpt lat="42.30378" lon="0.05052">
        <ele>887.9</ele>
        <time>2015-09-24T08:18:49Z</time>
      </trkpt>
      <trkpt lat="42.30373" lon="0.05054">
        <ele>888.1</ele>
        <time>2015-09-24T08:18:51Z</time>
      </trkpt>
      <trkpt lat="42.30369" lon="0.05056">
        <ele>888</ele>
        <time>2015-09-24T08:18:53Z</time>
      </trkpt>
      <trkpt lat="42.30365" lon="0.0506">
        <ele>887.8</ele>
        <time>2015-09-24T08:18:55Z</time>
      </trkpt>
      <trkpt lat="42.30361" lon="0.05065">
        <ele>887.5</ele>
        <time>2015-09-24T08:18:57Z</time>
      </trkpt>
      <trkpt lat="42.30358" lon="0.0507">
        <ele>887.2</ele>
        <time>2015-09-24T08:18:59Z</time>
      </trkpt>
      <trkpt lat="42.30354" lon="0.05075">
        <ele>887</ele>
        <time>2015-09-24T08:19:01Z</time>
      </trkpt>
      <trkpt lat="42.30349" lon="0.05078">
        <ele>886.9</ele>
        <time>2015-09-24T08:19:03Z</time>
      </trkpt>
      <trkpt lat="42.30346" lon="0.05079">
        <ele>886.9</ele>
        <time>2015-09-24T08:19:04Z</time>
      </trkpt>
      <trkpt lat="42.30343" lon="0.0508">
        <ele>886.9</ele>
        <time>2015-09-24T08:19:05Z</time>
      </trkpt>
      <trkpt lat="42.3034" lon="0.05081">
        <ele>886.9</ele>
        <time>2015-09-24T08:19:06Z</time>
      </trkpt>
      <trkpt lat="42.30337" lon="0.05083">
        <ele>886.9</ele>
        <time>2015-09-24T08:19:07Z</time>
      </trkpt>
      <trkpt lat="42.30334" lon="0.05084">
        <ele>886.9</ele>
        <time>2015-09-24T08:19:08Z</time>
      </trkpt>
      <trkpt lat="42.30331" lon="0.05086">
        <ele>886.9</ele>
        <time>2015-09-24T08:19:09Z</time>
      </trkpt>
      <trkpt lat="42.30328" lon="0.05088">
        <ele>886.8</ele>
        <time>2015-09-24T08:19:10Z</time>
      </trkpt>
      <trkpt lat="42.30325" lon="0.0509">
        <ele>886.8</ele>
        <time>2015-09-24T08:19:11Z</time>
      </trkpt>
      <trkpt lat="42.30321" lon="0.05092">
        <ele>886.7</ele>
        <time>2015-09-24T08:19:12Z</time>
      </trkpt>
      <trkpt lat="42.30319" lon="0.05095">
        <ele>886.6</ele>
        <time>2015-09-24T08:19:13Z</time>
      </trkpt>
      <trkpt lat="42.30316" lon="0.05098">
        <ele>886.4</ele>
        <time>2015-09-24T08:19:14Z</time>
      </trkpt>
      <trkpt lat="42.30313" lon="0.05101">
        <ele>886.3</ele>
        <time>2015-09-24T08:19:15Z</time>
      </trkpt>
      <trkpt lat="42.3031" lon="0.05103">
        <ele>886.1</ele>
        <time>2015-09-24T08:19:16Z</time>
      </trkpt>
      <trkpt lat="42.30307" lon="0.05106">
        <ele>886.1</ele>
        <time>2015-09-24T08:19:17Z</time>
      </trkpt>
      <trkpt lat="42.30304" lon="0.05107">
        <ele>886.1</ele>
        <time>2015-09-24T08:19:18Z</time>
      </trkpt>
      <trkpt lat="42.303" lon="0.05108">
        <ele>886.1</ele>
        <time>2015-09-24T08:19:19Z</time>
      </trkpt>
      <trkpt lat="42.30296" lon="0.05109">
        <ele>886.2</ele>
        <time>2015-09-24T08:19:20Z</time>
      </trkpt>
      <trkpt lat="42.30293" lon="0.0511">
        <ele>886.2</ele>
        <time>2015-09-24T08:19:21Z</time>
      </trkpt>
      <trkpt lat="42.30289" lon="0.05111">
        <ele>886.1</ele>
        <time>2015-09-24T08:19:22Z</time>
      </trkpt>
      <trkpt lat="42.30284" lon="0.05113">
        <ele>885.8</ele>
        <time>2015-09-24T08:19:23Z</time>
      </trkpt>
      <trkpt lat="42.3028" lon="0.05114">
        <ele>885.5</ele>
        <time>2015-09-24T08:19:24Z</time>
      </trkpt>
      <trkpt lat="42.30276" lon="0.05115">
        <ele>885.3</ele>
        <time>2015-09-24T08:19:25Z</time>
      </trkpt>
      <trkpt lat="42.30271" lon="0.05116">
        <ele>885.1</ele>
        <time>2015-09-24T08:19:26Z</time>
      </trkpt>
      <trkpt lat="42.30267" lon="0.05116">
        <ele>884.9</ele>
        <time>2015-09-24T08:19:27Z</time>
      </trkpt>
      <trkpt lat="42.30263" lon="0.05116">
        <ele>884.8</ele>
        <time>2015-09-24T08:19:28Z</time>
      </trkpt>
      <trkpt lat="42.30258" lon="0.05116">
        <ele>884.6</ele>
        <time>2015-09-24T08:19:29Z</time>
      </trkpt>
      <trkpt lat="42.30254" lon="0.05116">
        <ele>884.5</ele>
        <time>2015-09-24T08:19:30Z</time>
      </trkpt>
      <trkpt lat="42.30249" lon="0.05117">
        <ele>884.3</ele>
        <time>2015-09-24T08:19:31Z</time>
      </trkpt>
      <trkpt lat="42.30245" lon="0.05117">
        <ele>884.1</ele>
        <time>2015-09-24T08:19:32Z</time>
      </trkpt>
      <trkpt lat="42.30241" lon="0.05117">
        <ele>883.9</ele>
        <time>2015-09-24T08:19:33Z</time>
      </trkpt>
      <trkpt lat="42.30237" lon="0.05118">
        <ele>883.8</ele>
        <time>2015-09-24T08:19:34Z</time>
      </trkpt>
      <trkpt lat="42.30232" lon="0.05118">
        <ele>883.6</ele>
        <time>2015-09-24T08:19:35Z</time>
      </trkpt>
      <trkpt lat="42.30228" lon="0.05117">
        <ele>883.5</ele>
        <time>2015-09-24T08:19:36Z</time>
      </trkpt>
      <trkpt lat="42.30223" lon="0.05116">
        <ele>883.4</ele>
        <time>2015-09-24T08:19:37Z</time>
      </trkpt>
      <trkpt lat="42.30219" lon="0.05117">
        <ele>883.2</ele>
        <time>2015-09-24T08:19:38Z</time>
      </trkpt>
      <trkpt lat="42.30214" lon="0.05117">
        <ele>883</ele>
        <time>2015-09-24T08:19:39Z</time>
      </trkpt>
      <trkpt lat="42.3021" lon="0.05118">
        <ele>882.8</ele>
        <time>2015-09-24T08:19:40Z</time>
      </trkpt>
      <trkpt lat="42.30205" lon="0.05119">
        <ele>882.7</ele>
        <time>2015-09-24T08:19:41Z</time>
      </trkpt>
      <trkpt lat="42.302" lon="0.05119">
        <ele>882.7</ele>
        <time>2015-09-24T08:19:42Z</time>
      </trkpt>
      <trkpt lat="42.30195" lon="0.05119">
        <ele>882.7</ele>
        <time>2015-09-24T08:19:43Z</time>
      </trkpt>
      <trkpt lat="42.3019" lon="0.05118">
        <ele>882.7</ele>
        <time>2015-09-24T08:19:44Z</time>
      </trkpt>
      <trkpt lat="42.30186" lon="0.05119">
        <ele>882.6</ele>
        <time>2015-09-24T08:19:45Z</time>
      </trkpt>
      <trkpt lat="42.30182" lon="0.05119">
        <ele>882.6</ele>
        <time>2015-09-24T08:19:46Z</time>
      </trkpt>
      <trkpt lat="42.30177" lon="0.05119">
        <ele>882.6</ele>
        <time>2015-09-24T08:19:47Z</time>
      </trkpt>
      <trkpt lat="42.30172" lon="0.05118">
        <ele>882.6</ele>
        <time>2015-09-24T08:19:48Z</time>
      </trkpt>
      <trkpt lat="42.30167" lon="0.05119">
        <ele>882.6</ele>
        <time>2015-09-24T08:19:49Z</time>
      </trkpt>
      <trkpt lat="42.30162" lon="0.0512">
        <ele>882.4</ele>
        <time>2015-09-24T08:19:50Z</time>
      </trkpt>
      <trkpt lat="42.30155" lon="0.05122">
        <ele>882.3</ele>
        <time>2015-09-24T08:19:51Z</time>
      </trkpt>
      <trkpt lat="42.30149" lon="0.05124">
        <ele>882.1</ele>
        <time>2015-09-24T08:19:52Z</time>
      </trkpt>
      <trkpt lat="42.30144" lon="0.05126">
        <ele>881.9</ele>
        <time>2015-09-24T08:19:53Z</time>
      </trkpt>
      <trkpt lat="42.30139" lon="0.0513">
        <ele>881.6</ele>
        <time>2015-09-24T08:19:54Z</time>
      </trkpt>
      <trkpt lat="42.30135" lon="0.05135">
        <ele>881.3</ele>
        <time>2015-09-24T08:19:55Z</time>
      </trkpt>
      <trkpt lat="42.30131" lon="0.0514">
        <ele>880.9</ele>
        <time>2015-09-24T08:19:56Z</time>
      </trkpt>
      <trkpt lat="42.30126" lon="0.05144">
        <ele>880.7</ele>
        <time>2015-09-24T08:19:57Z</time>
      </trkpt>
      <trkpt lat="42.30122" lon="0.05148">
        <ele>880.5</ele>
        <time>2015-09-24T08:19:58Z</time>
      </trkpt>
      <trkpt lat="42.30117" lon="0.05152">
        <ele>880.4</ele>
        <time>2015-09-24T08:19:59Z</time>
      </trkpt>
      <trkpt lat="42.30112" lon="0.05155">
        <ele>880.4</ele>
        <time>2015-09-24T08:20:00Z</time>
      </trkpt>
      <trkpt lat="42.30108" lon="0.05158">
        <ele>880.4</ele>
        <time>2015-09-24T08:20:01Z</time>
      </trkpt>
      <trkpt lat="42.30103" lon="0.05161">
        <ele>880.4</ele>
        <time>2015-09-24T08:20:02Z</time>
      </trkpt>
      <trkpt lat="42.30099" lon="0.05164">
        <ele>880.3</ele>
        <time>2015-09-24T08:20:03Z</time>
      </trkpt>
      <trkpt lat="42.30094" lon="0.05167">
        <ele>880.3</ele>
        <time>2015-09-24T08:20:04Z</time>
      </trkpt>
      <trkpt lat="42.30089" lon="0.05171">
        <ele>880.2</ele>
        <time>2015-09-24T08:20:05Z</time>
      </trkpt>
      <trkpt lat="42.30084" lon="0.05175">
        <ele>880.1</ele>
        <time>2015-09-24T08:20:06Z</time>
      </trkpt>
      <trkpt lat="42.30079" lon="0.05179">
        <ele>880</ele>
        <time>2015-09-24T08:20:07Z</time>
      </trkpt>
      <trkpt lat="42.30074" lon="0.05181">
        <ele>880</ele>
        <time>2015-09-24T08:20:08Z</time>
      </trkpt>
      <trkpt lat="42.30068" lon="0.05183">
        <ele>880.1</ele>
        <time>2015-09-24T08:20:09Z</time>
      </trkpt>
      <trkpt lat="42.30062" lon="0.05184">
        <ele>880.3</ele>
        <time>2015-09-24T08:20:10Z</time>
      </trkpt>
      <trkpt lat="42.30057" lon="0.05184">
        <ele>880.5</ele>
        <time>2015-09-24T08:20:11Z</time>
      </trkpt>
      <trkpt lat="42.30051" lon="0.05183">
        <ele>880.7</ele>
        <time>2015-09-24T08:20:12Z</time>
      </trkpt>
      <trkpt lat="42.30046" lon="0.05182">
        <ele>881</ele>
        <time>2015-09-24T08:20:13Z</time>
      </trkpt>
      <trkpt lat="42.30041" lon="0.05182">
        <ele>881.3</ele>
        <time>2015-09-24T08:20:14Z</time>
      </trkpt>
      <trkpt lat="42.30034" lon="0.05182">
        <ele>881.6</ele>
        <time>2015-09-24T08:20:15Z</time>
      </trkpt>
      <trkpt lat="42.30029" lon="0.05184">
        <ele>881.7</ele>
        <time>2015-09-24T08:20:16Z</time>
      </trkpt>
      <trkpt lat="42.30023" lon="0.05186">
        <ele>881.8</ele>
        <time>2015-09-24T08:20:17Z</time>
      </trkpt>
      <trkpt lat="42.30019" lon="0.05187">
        <ele>881.9</ele>
        <time>2015-09-24T08:20:18Z</time>
      </trkpt>
      <trkpt lat="42.30014" lon="0.05188">
        <ele>882.1</ele>
        <time>2015-09-24T08:20:19Z</time>
      </trkpt>
      <trkpt lat="42.30009" lon="0.05189">
        <ele>882.3</ele>
        <time>2015-09-24T08:20:20Z</time>
      </trkpt>
      <trkpt lat="42.30004" lon="0.0519">
        <ele>882.4</ele>
        <time>2015-09-24T08:20:21Z</time>
      </trkpt>
      <trkpt lat="42.3" lon="0.05191">
        <ele>882.6</ele>
        <time>2015-09-24T08:20:22Z</time>
      </trkpt>
      <trkpt lat="42.29995" lon="0.05192">
        <ele>882.7</ele>
        <time>2015-09-24T08:20:23Z</time>
      </trkpt>
      <trkpt lat="42.2999" lon="0.05193">
        <ele>882.9</ele>
        <time>2015-09-24T08:20:24Z</time>
      </trkpt>
      <trkpt lat="42.29986" lon="0.05194">
        <ele>883</ele>
        <time>2015-09-24T08:20:25Z</time>
      </trkpt>
      <trkpt lat="42.29982" lon="0.05195">
        <ele>883.1</ele>
        <time>2015-09-24T08:20:26Z</time>
      </trkpt>
      <trkpt lat="42.29978" lon="0.05198">
        <ele>883</ele>
        <time>2015-09-24T08:20:27Z</time>
      </trkpt>
      <trkpt lat="42.29974" lon="0.052">
        <ele>883.1</ele>
        <time>2015-09-24T08:20:28Z</time>
      </trkpt>
      <trkpt lat="42.29968" lon="0.05202">
        <ele>883.2</ele>
        <time>2015-09-24T08:20:29Z</time>
      </trkpt>
      <trkpt lat="42.29963" lon="0.05204">
        <ele>883.2</ele>
        <time>2015-09-24T08:20:30Z</time>
      </trkpt>
      <trkpt lat="42.29958" lon="0.05206">
        <ele>883.3</ele>
        <time>2015-09-24T08:20:31Z</time>
      </trkpt>
      <trkpt lat="42.29952" lon="0.05208">
        <ele>883.4</ele>
        <time>2015-09-24T08:20:32Z</time>
      </trkpt>
      <trkpt lat="42.29946" lon="0.05212">
        <ele>883.4</ele>
        <time>2015-09-24T08:20:33Z</time>
      </trkpt>
      <trkpt lat="42.29941" lon="0.05215">
        <ele>883.4</ele>
        <time>2015-09-24T08:20:34Z</time>
      </trkpt>
      <trkpt lat="42.29936" lon="0.0522">
        <ele>883.3</ele>
        <time>2015-09-24T08:20:35Z</time>
      </trkpt>
      <trkpt lat="42.29931" lon="0.05224">
        <ele>883.3</ele>
        <time>2015-09-24T08:20:36Z</time>
      </trkpt>
      <trkpt lat="42.29926" lon="0.05227">
        <ele>883.4</ele>
        <time>2015-09-24T08:20:37Z</time>
      </trkpt>
      <trkpt lat="42.29921" lon="0.05229">
        <ele>883.6</ele>
        <time>2015-09-24T08:20:38Z</time>
      </trkpt>
      <trkpt lat="42.29915" lon="0.05231">
        <ele>883.9</ele>
        <time>2015-09-24T08:20:39Z</time>
      </trkpt>
      <trkpt lat="42.2991" lon="0.05233">
        <ele>884.1</ele>
        <time>2015-09-24T08:20:40Z</time>
      </trkpt>
      <trkpt lat="42.29906" lon="0.05236">
        <ele>884.2</ele>
        <time>2015-09-24T08:20:41Z</time>
      </trkpt>
      <trkpt lat="42.29902" lon="0.0524">
        <ele>884.1</ele>
        <time>2015-09-24T08:20:42Z</time>
      </trkpt>
      <trkpt lat="42.299" lon="0.05243">
        <ele>884.1</ele>
        <time>2015-09-24T08:20:43Z</time>
      </trkpt>
      <trkpt lat="42.29896" lon="0.05247">
        <ele>884.1</ele>
        <time>2015-09-24T08:20:45Z</time>
      </trkpt>
      <trkpt lat="42.29892" lon="0.05251">
        <ele>884.1</ele>
        <time>2015-09-24T08:20:47Z</time>
      </trkpt>
      <trkpt lat="42.29889" lon="0.05253">
        <ele>884.2</ele>
        <time>2015-09-24T08:20:49Z</time>
      </trkpt>
      <trkpt lat="42.29887" lon="0.05256">
        <ele>884.2</ele>
        <time>2015-09-24T08:20:51Z</time>
      </trkpt>
      <trkpt lat="42.29883" lon="0.05259">
        <ele>884.3</ele>
        <time>2015-09-24T08:20:53Z</time>
      </trkpt>
      <trkpt lat="42.29879" lon="0.05262">
        <ele>884.4</ele>
        <time>2015-09-24T08:20:55Z</time>
      </trkpt>
      <trkpt lat="42.29875" lon="0.05266">
        <ele>884.6</ele>
        <time>2015-09-24T08:20:57Z</time>
      </trkpt>
      <trkpt lat="42.2987" lon="0.05268">
        <ele>885.1</ele>
        <time>2015-09-24T08:20:59Z</time>
      </trkpt>
      <trkpt lat="42.29867" lon="0.0527">
        <ele>885.3</ele>
        <time>2015-09-24T08:21:00Z</time>
      </trkpt>
      <trkpt lat="42.29864" lon="0.05271">
        <ele>885.6</ele>
        <time>2015-09-24T08:21:01Z</time>
      </trkpt>
      <trkpt lat="42.29861" lon="0.05273">
        <ele>885.9</ele>
        <time>2015-09-24T08:21:02Z</time>
      </trkpt>
      <trkpt lat="42.29858" lon="0.05274">
        <ele>886.2</ele>
        <time>2015-09-24T08:21:03Z</time>
      </trkpt>
      <trkpt lat="42.29856" lon="0.05276">
        <ele>886.4</ele>
        <time>2015-09-24T08:21:04Z</time>
      </trkpt>
      <trkpt lat="42.29853" lon="0.05278">
        <ele>886.7</ele>
        <time>2015-09-24T08:21:05Z</time>
      </trkpt>
      <trkpt lat="42.2985" lon="0.0528">
        <ele>886.9</ele>
        <time>2015-09-24T08:21:06Z</time>
      </trkpt>
      <trkpt lat="42.29847" lon="0.05283">
        <ele>887.2</ele>
        <time>2015-09-24T08:21:07Z</time>
      </trkpt>
      <trkpt lat="42.29843" lon="0.05286">
        <ele>887.5</ele>
        <time>2015-09-24T08:21:08Z</time>
      </trkpt>
      <trkpt lat="42.2984" lon="0.05288">
        <ele>887.8</ele>
        <time>2015-09-24T08:21:09Z</time>
      </trkpt>
      <trkpt lat="42.29836" lon="0.0529">
        <ele>888.2</ele>
        <time>2015-09-24T08:21:10Z</time>
      </trkpt>
      <trkpt lat="42.29832" lon="0.05293">
        <ele>888.5</ele>
        <time>2015-09-24T08:21:11Z</time>
      </trkpt>
      <trkpt lat="42.29829" lon="0.05295">
        <ele>888.8</ele>
        <time>2015-09-24T08:21:12Z</time>
      </trkpt>
      <trkpt lat="42.29826" lon="0.05297">
        <ele>889</ele>
        <time>2015-09-24T08:21:13Z</time>
      </trkpt>
      <trkpt lat="42.29822" lon="0.05299">
        <ele>889.2</ele>
        <time>2015-09-24T08:21:14Z</time>
      </trkpt>
      <trkpt lat="42.29819" lon="0.053">
        <ele>889.5</ele>
        <time>2015-09-24T08:21:15Z</time>
      </trkpt>
      <trkpt lat="42.29816" lon="0.05302">
        <ele>889.7</ele>
        <time>2015-09-24T08:21:16Z</time>
      </trkpt>
      <trkpt lat="42.29813" lon="0.05303">
        <ele>890</ele>
        <time>2015-09-24T08:21:17Z</time>
      </trkpt>
      <trkpt lat="42.2981" lon="0.05305">
        <ele>890.2</ele>
        <time>2015-09-24T08:21:18Z</time>
      </trkpt>
      <trkpt lat="42.29807" lon="0.05307">
        <ele>890.3</ele>
        <time>2015-09-24T08:21:19Z</time>
      </trkpt>
      <trkpt lat="42.29804" lon="0.05309">
        <ele>890.4</ele>
        <time>2015-09-24T08:21:20Z</time>
      </trkpt>
      <trkpt lat="42.29802" lon="0.05311">
        <ele>890.4</ele>
        <time>2015-09-24T08:21:21Z</time>
      </trkpt>
      <trkpt lat="42.29799" lon="0.05314">
        <ele>890.5</ele>
        <time>2015-09-24T08:21:22Z</time>
      </trkpt>
      <trkpt lat="42.29797" lon="0.05316">
        <ele>890.5</ele>
        <time>2015-09-24T08:21:23Z</time>
      </trkpt>
      <trkpt lat="42.29794" lon="0.05319">
        <ele>890.5</ele>
        <time>2015-09-24T08:21:24Z</time>
      </trkpt>
      <trkpt lat="42.29791" lon="0.05321">
        <ele>890.5</ele>
        <time>2015-09-24T08:21:25Z</time>
      </trkpt>
      <trkpt lat="42.29788" lon="0.05324">
        <ele>890.4</ele>
        <time>2015-09-24T08:21:26Z</time>
      </trkpt>
      <trkpt lat="42.29785" lon="0.05326">
        <ele>890.4</ele>
        <time>2015-09-24T08:21:27Z</time>
      </trkpt>
      <trkpt lat="42.29781" lon="0.05329">
        <ele>890.3</ele>
        <time>2015-09-24T08:21:28Z</time>
      </trkpt>
      <trkpt lat="42.29778" lon="0.05331">
        <ele>890.3</ele>
        <time>2015-09-24T08:21:29Z</time>
      </trkpt>
      <trkpt lat="42.29775" lon="0.05333">
        <ele>890.3</ele>
        <time>2015-09-24T08:21:30Z</time>
      </trkpt>
      <trkpt lat="42.29771" lon="0.05336">
        <ele>890.4</ele>
        <time>2015-09-24T08:21:31Z</time>
      </trkpt>
      <trkpt lat="42.29767" lon="0.05337">
        <ele>890.5</ele>
        <time>2015-09-24T08:21:32Z</time>
      </trkpt>
      <trkpt lat="42.29762" lon="0.05338">
        <ele>890.8</ele>
        <time>2015-09-24T08:21:33Z</time>
      </trkpt>
      <trkpt lat="42.29758" lon="0.05339">
        <ele>891.1</ele>
        <time>2015-09-24T08:21:34Z</time>
      </trkpt>
      <trkpt lat="42.29753" lon="0.0534">
        <ele>891.3</ele>
        <time>2015-09-24T08:21:35Z</time>
      </trkpt>
      <trkpt lat="42.2975" lon="0.05342">
        <ele>891.4</ele>
        <time>2015-09-24T08:21:36Z</time>
      </trkpt>
      <trkpt lat="42.29747" lon="0.05346">
        <ele>891.2</ele>
        <time>2015-09-24T08:21:37Z</time>
      </trkpt>
      <trkpt lat="42.29745" lon="0.0535">
        <ele>891</ele>
        <time>2015-09-24T08:21:38Z</time>
      </trkpt>
      <trkpt lat="42.29743" lon="0.05355">
        <ele>890.7</ele>
        <time>2015-09-24T08:21:39Z</time>
      </trkpt>
      <trkpt lat="42.29742" lon="0.05358">
        <ele>890.5</ele>
        <time>2015-09-24T08:21:40Z</time>
      </trkpt>
      <trkpt lat="42.29739" lon="0.05364">
        <ele>890.2</ele>
        <time>2015-09-24T08:21:42Z</time>
      </trkpt>
      <trkpt lat="42.29737" lon="0.05366">
        <ele>890.1</ele>
        <time>2015-09-24T08:21:43Z</time>
      </trkpt>
      <trkpt lat="42.29735" lon="0.05369">
        <ele>890</ele>
        <time>2015-09-24T08:21:44Z</time>
      </trkpt>
      <trkpt lat="42.29732" lon="0.05375">
        <ele>889.8</ele>
        <time>2015-09-24T08:21:46Z</time>
      </trkpt>
      <trkpt lat="42.2973" lon="0.05378">
        <ele>889.8</ele>
        <time>2015-09-24T08:21:47Z</time>
      </trkpt>
      <trkpt lat="42.29728" lon="0.05381">
        <ele>889.7</ele>
        <time>2015-09-24T08:21:48Z</time>
      </trkpt>
      <trkpt lat="42.29727" lon="0.05384">
        <ele>889.6</ele>
        <time>2015-09-24T08:21:49Z</time>
      </trkpt>
      <trkpt lat="42.29725" lon="0.05387">
        <ele>889.6</ele>
        <time>2015-09-24T08:21:50Z</time>
      </trkpt>
      <trkpt lat="42.29724" lon="0.0539">
        <ele>889.5</ele>
        <time>2015-09-24T08:21:51Z</time>
      </trkpt>
      <trkpt lat="42.29722" lon="0.05393">
        <ele>889.5</ele>
        <time>2015-09-24T08:21:52Z</time>
      </trkpt>
      <trkpt lat="42.29721" lon="0.05396">
        <ele>889.4</ele>
        <time>2015-09-24T08:21:53Z</time>
      </trkpt>
      <trkpt lat="42.2972" lon="0.054">
        <ele>889.3</ele>
        <time>2015-09-24T08:21:54Z</time>
      </trkpt>
      <trkpt lat="42.29718" lon="0.05403">
        <ele>889.1</ele>
        <time>2015-09-24T08:21:55Z</time>
      </trkpt>
      <trkpt lat="42.29717" lon="0.05406">
        <ele>889</ele>
        <time>2015-09-24T08:21:56Z</time>
      </trkpt>
      <trkpt lat="42.29715" lon="0.0541">
        <ele>889</ele>
        <time>2015-09-24T08:21:57Z</time>
      </trkpt>
      <trkpt lat="42.29713" lon="0.05412">
        <ele>889</ele>
        <time>2015-09-24T08:21:58Z</time>
      </trkpt>
      <trkpt lat="42.2971" lon="0.05414">
        <ele>889</ele>
        <time>2015-09-24T08:21:59Z</time>
      </trkpt>
      <trkpt lat="42.29707" lon="0.05415">
        <ele>889.2</ele>
        <time>2015-09-24T08:22:00Z</time>
      </trkpt>
      <trkpt lat="42.29705" lon="0.05415">
        <ele>889.5</ele>
        <time>2015-09-24T08:22:01Z</time>
      </trkpt>
      <trkpt lat="42.29702" lon="0.05412">
        <ele>890</ele>
        <time>2015-09-24T08:22:03Z</time>
      </trkpt>
      <trkpt lat="42.29699" lon="0.05409">
        <ele>890.5</ele>
        <time>2015-09-24T08:22:05Z</time>
      </trkpt>
      <trkpt lat="42.29696" lon="0.05406">
        <ele>891</ele>
        <time>2015-09-24T08:22:07Z</time>
      </trkpt>
      <trkpt lat="42.29692" lon="0.05404">
        <ele>891.5</ele>
        <time>2015-09-24T08:22:09Z</time>
      </trkpt>
      <trkpt lat="42.29688" lon="0.05402">
        <ele>892</ele>
        <time>2015-09-24T08:22:11Z</time>
      </trkpt>
      <trkpt lat="42.29685" lon="0.05401">
        <ele>892.5</ele>
        <time>2015-09-24T08:22:13Z</time>
      </trkpt>
      <trkpt lat="42.29681" lon="0.054">
        <ele>892.9</ele>
        <time>2015-09-24T08:22:15Z</time>
      </trkpt>
      <trkpt lat="42.29677" lon="0.05399">
        <ele>893.4</ele>
        <time>2015-09-24T08:22:17Z</time>
      </trkpt>
      <trkpt lat="42.29673" lon="0.05397">
        <ele>893.9</ele>
        <time>2015-09-24T08:22:19Z</time>
      </trkpt>
      <trkpt lat="42.29669" lon="0.05395">
        <ele>894.5</ele>
        <time>2015-09-24T08:22:21Z</time>
      </trkpt>
      <trkpt lat="42.29665" lon="0.05394">
        <ele>895</ele>
        <time>2015-09-24T08:22:23Z</time>
      </trkpt>
      <trkpt lat="42.2966" lon="0.05392">
        <ele>895.6</ele>
        <time>2015-09-24T08:22:25Z</time>
      </trkpt>
      <trkpt lat="42.29656" lon="0.0539">
        <ele>896.2</ele>
        <time>2015-09-24T08:22:27Z</time>
      </trkpt>
      <trkpt lat="42.29652" lon="0.05389">
        <ele>896.8</ele>
        <time>2015-09-24T08:22:29Z</time>
      </trkpt>
      <trkpt lat="42.29648" lon="0.05387">
        <ele>897.4</ele>
        <time>2015-09-24T08:22:31Z</time>
      </trkpt>
      <trkpt lat="42.29643" lon="0.05386">
        <ele>898</ele>
        <time>2015-09-24T08:22:33Z</time>
      </trkpt>
      <trkpt lat="42.29639" lon="0.05385">
        <ele>898.5</ele>
        <time>2015-09-24T08:22:35Z</time>
      </trkpt>
      <trkpt lat="42.29635" lon="0.05383">
        <ele>899.1</ele>
        <time>2015-09-24T08:22:37Z</time>
      </trkpt>
      <trkpt lat="42.29631" lon="0.05379">
        <ele>899.9</ele>
        <time>2015-09-24T08:22:39Z</time>
      </trkpt>
      <trkpt lat="42.29628" lon="0.05375">
        <ele>900.6</ele>
        <time>2015-09-24T08:22:41Z</time>
      </trkpt>
      <trkpt lat="42.29625" lon="0.05372">
        <ele>901.2</ele>
        <time>2015-09-24T08:22:43Z</time>
      </trkpt>
      <trkpt lat="42.29621" lon="0.05368">
        <ele>901.6</ele>
        <time>2015-09-24T08:22:45Z</time>
      </trkpt>
      <trkpt lat="42.29618" lon="0.05365">
        <ele>901.9</ele>
        <time>2015-09-24T08:22:47Z</time>
      </trkpt>
      <trkpt lat="42.29614" lon="0.05363">
        <ele>902.2</ele>
        <time>2015-09-24T08:22:49Z</time>
      </trkpt>
      <trkpt lat="42.2961" lon="0.05362">
        <ele>902.4</ele>
        <time>2015-09-24T08:22:51Z</time>
      </trkpt>
      <trkpt lat="42.29606" lon="0.0536">
        <ele>902.7</ele>
        <time>2015-09-24T08:22:53Z</time>
      </trkpt>
      <trkpt lat="42.29602" lon="0.05359">
        <ele>902.9</ele>
        <time>2015-09-24T08:22:55Z</time>
      </trkpt>
      <trkpt lat="42.29598" lon="0.05357">
        <ele>903.2</ele>
        <time>2015-09-24T08:22:57Z</time>
      </trkpt>
      <trkpt lat="42.29594" lon="0.05356">
        <ele>903.4</ele>
        <time>2015-09-24T08:22:59Z</time>
      </trkpt>
      <trkpt lat="42.2959" lon="0.05354">
        <ele>903.7</ele>
        <time>2015-09-24T08:23:01Z</time>
      </trkpt>
      <trkpt lat="42.29585" lon="0.05352">
        <ele>904</ele>
        <time>2015-09-24T08:23:03Z</time>
      </trkpt>
      <trkpt lat="42.29581" lon="0.0535">
        <ele>904.3</ele>
        <time>2015-09-24T08:23:05Z</time>
      </trkpt>
      <trkpt lat="42.29576" lon="0.05349">
        <ele>904.6</ele>
        <time>2015-09-24T08:23:07Z</time>
      </trkpt>
      <trkpt lat="42.29572" lon="0.05347">
        <ele>905</ele>
        <time>2015-09-24T08:23:09Z</time>
      </trkpt>
      <trkpt lat="42.29568" lon="0.05345">
        <ele>905.3</ele>
        <time>2015-09-24T08:23:11Z</time>
      </trkpt>
      <trkpt lat="42.29564" lon="0.05342">
        <ele>905.7</ele>
        <time>2015-09-24T08:23:13Z</time>
      </trkpt>
      <trkpt lat="42.29561" lon="0.0534">
        <ele>906.1</ele>
        <time>2015-09-24T08:23:15Z</time>
      </trkpt>
      <trkpt lat="42.29557" lon="0.05337">
        <ele>906.5</ele>
        <time>2015-09-24T08:23:17Z</time>
      </trkpt>
      <trkpt lat="42.29553" lon="0.05335">
        <ele>906.9</ele>
        <time>2015-09-24T08:23:19Z</time>
      </trkpt>
      <trkpt lat="42.2955" lon="0.05333">
        <ele>907.2</ele>
        <time>2015-09-24T08:23:21Z</time>
      </trkpt>
      <trkpt lat="42.29545" lon="0.05331">
        <ele>907.6</ele>
        <time>2015-09-24T08:23:23Z</time>
      </trkpt>
      <trkpt lat="42.29541" lon="0.0533">
        <ele>907.9</ele>
        <time>2015-09-24T08:23:25Z</time>
      </trkpt>
      <trkpt lat="42.29536" lon="0.05329">
        <ele>908.1</ele>
        <time>2015-09-24T08:23:27Z</time>
      </trkpt>
      <trkpt lat="42.29531" lon="0.05328">
        <ele>908.2</ele>
        <time>2015-09-24T08:23:29Z</time>
      </trkpt>
      <trkpt lat="42.29527" lon="0.05329">
        <ele>908.1</ele>
        <time>2015-09-24T08:23:30Z</time>
      </trkpt>
      <trkpt lat="42.29524" lon="0.0533">
        <ele>908.1</ele>
        <time>2015-09-24T08:23:31Z</time>
      </trkpt>
      <trkpt lat="42.29521" lon="0.0533">
        <ele>908.1</ele>
        <time>2015-09-24T08:23:32Z</time>
      </trkpt>
      <trkpt lat="42.29517" lon="0.0533">
        <ele>908.1</ele>
        <time>2015-09-24T08:23:33Z</time>
      </trkpt>
      <trkpt lat="42.29514" lon="0.0533">
        <ele>908.1</ele>
        <time>2015-09-24T08:23:34Z</time>
      </trkpt>
      <trkpt lat="42.2951" lon="0.0533">
        <ele>908.2</ele>
        <time>2015-09-24T08:23:35Z</time>
      </trkpt>
      <trkpt lat="42.29506" lon="0.0533">
        <ele>908.2</ele>
        <time>2015-09-24T08:23:36Z</time>
      </trkpt>
      <trkpt lat="42.29503" lon="0.05329">
        <ele>908.3</ele>
        <time>2015-09-24T08:23:37Z</time>
      </trkpt>
      <trkpt lat="42.29499" lon="0.05329">
        <ele>908.4</ele>
        <time>2015-09-24T08:23:38Z</time>
      </trkpt>
      <trkpt lat="42.29495" lon="0.05328">
        <ele>908.5</ele>
        <time>2015-09-24T08:23:39Z</time>
      </trkpt>
      <trkpt lat="42.29492" lon="0.05328">
        <ele>908.5</ele>
        <time>2015-09-24T08:23:40Z</time>
      </trkpt>
      <trkpt lat="42.29488" lon="0.05327">
        <ele>908.6</ele>
        <time>2015-09-24T08:23:41Z</time>
      </trkpt>
      <trkpt lat="42.29485" lon="0.05326">
        <ele>908.7</ele>
        <time>2015-09-24T08:23:42Z</time>
      </trkpt>
      <trkpt lat="42.29482" lon="0.05325">
        <ele>908.8</ele>
        <time>2015-09-24T08:23:43Z</time>
      </trkpt>
      <trkpt lat="42.29479" lon="0.05325">
        <ele>908.9</ele>
        <time>2015-09-24T08:23:44Z</time>
      </trkpt>
      <trkpt lat="42.29476" lon="0.05324">
        <ele>908.9</ele>
        <time>2015-09-24T08:23:45Z</time>
      </trkpt>
      <trkpt lat="42.2947" lon="0.05323">
        <ele>909</ele>
        <time>2015-09-24T08:23:47Z</time>
      </trkpt>
      <trkpt lat="42.29468" lon="0.05322">
        <ele>909.1</ele>
        <time>2015-09-24T08:23:48Z</time>
      </trkpt>
      <trkpt lat="42.29465" lon="0.05322">
        <ele>909.2</ele>
        <time>2015-09-24T08:23:49Z</time>
      </trkpt>
      <trkpt lat="42.29462" lon="0.05321">
        <ele>909.2</ele>
        <time>2015-09-24T08:23:50Z</time>
      </trkpt>
      <trkpt lat="42.29459" lon="0.05321">
        <ele>909.2</ele>
        <time>2015-09-24T08:23:51Z</time>
      </trkpt>
      <trkpt lat="42.29456" lon="0.05321">
        <ele>909.3</ele>
        <time>2015-09-24T08:23:52Z</time>
      </trkpt>
      <trkpt lat="42.29451" lon="0.05322">
        <ele>909.5</ele>
        <time>2015-09-24T08:23:53Z</time>
      </trkpt>
      <trkpt lat="42.29447" lon="0.05321">
        <ele>909.7</ele>
        <time>2015-09-24T08:23:54Z</time>
      </trkpt>
      <trkpt lat="42.29441" lon="0.05319">
        <ele>910</ele>
        <time>2015-09-24T08:23:55Z</time>
      </trkpt>
      <trkpt lat="42.29437" lon="0.05317">
        <ele>910.4</ele>
        <time>2015-09-24T08:23:56Z</time>
      </trkpt>
      <trkpt lat="42.29433" lon="0.05315">
        <ele>910.6</ele>
        <time>2015-09-24T08:23:57Z</time>
      </trkpt>
      <trkpt lat="42.2943" lon="0.05311">
        <ele>910.9</ele>
        <time>2015-09-24T08:23:58Z</time>
      </trkpt>
      <trkpt lat="42.29427" lon="0.05308">
        <ele>911.2</ele>
        <time>2015-09-24T08:23:59Z</time>
      </trkpt>
      <trkpt lat="42.29425" lon="0.05305">
        <ele>911.4</ele>
        <time>2015-09-24T08:24:00Z</time>
      </trkpt>
      <trkpt lat="42.29423" lon="0.05302">
        <ele>911.7</ele>
        <time>2015-09-24T08:24:01Z</time>
      </trkpt>
      <trkpt lat="42.29421" lon="0.05299">
        <ele>911.9</ele>
        <time>2015-09-24T08:24:02Z</time>
      </trkpt>
      <trkpt lat="42.29418" lon="0.05297">
        <ele>912.2</ele>
        <time>2015-09-24T08:24:03Z</time>
      </trkpt>
      <trkpt lat="42.29414" lon="0.05294">
        <ele>912.5</ele>
        <time>2015-09-24T08:24:05Z</time>
      </trkpt>
      <trkpt lat="42.2941" lon="0.05292">
        <ele>912.8</ele>
        <time>2015-09-24T08:24:07Z</time>
      </trkpt>
      <trkpt lat="42.29405" lon="0.05289">
        <ele>913.1</ele>
        <time>2015-09-24T08:24:09Z</time>
      </trkpt>
      <trkpt lat="42.29401" lon="0.05288">
        <ele>913.4</ele>
        <time>2015-09-24T08:24:11Z</time>
      </trkpt>
      <trkpt lat="42.29397" lon="0.05287">
        <ele>913.7</ele>
        <time>2015-09-24T08:24:13Z</time>
      </trkpt>
      <trkpt lat="42.29394" lon="0.05286">
        <ele>913.8</ele>
        <time>2015-09-24T08:24:15Z</time>
      </trkpt>
      <trkpt lat="42.2939" lon="0.05285">
        <ele>914</ele>
        <time>2015-09-24T08:24:17Z</time>
      </trkpt>
      <trkpt lat="42.29387" lon="0.05285">
        <ele>914.1</ele>
        <time>2015-09-24T08:24:19Z</time>
      </trkpt>
      <trkpt lat="42.29384" lon="0.05284">
        <ele>914.3</ele>
        <time>2015-09-24T08:24:21Z</time>
      </trkpt>
      <trkpt lat="42.2938" lon="0.05283">
        <ele>914.5</ele>
        <time>2015-09-24T08:24:23Z</time>
      </trkpt>
      <trkpt lat="42.29377" lon="0.05283">
        <ele>914.6</ele>
        <time>2015-09-24T08:24:25Z</time>
      </trkpt>
      <trkpt lat="42.29373" lon="0.05282">
        <ele>914.8</ele>
        <time>2015-09-24T08:24:27Z</time>
      </trkpt>
      <trkpt lat="42.2937" lon="0.05282">
        <ele>915</ele>
        <time>2015-09-24T08:24:29Z</time>
      </trkpt>
      <trkpt lat="42.29366" lon="0.05281">
        <ele>915.2</ele>
        <time>2015-09-24T08:24:31Z</time>
      </trkpt>
      <trkpt lat="42.29363" lon="0.05281">
        <ele>915.4</ele>
        <time>2015-09-24T08:24:33Z</time>
      </trkpt>
      <trkpt lat="42.29359" lon="0.05281">
        <ele>915.5</ele>
        <time>2015-09-24T08:24:35Z</time>
      </trkpt>
      <trkpt lat="42.29356" lon="0.05281">
        <ele>915.7</ele>
        <time>2015-09-24T08:24:37Z</time>
      </trkpt>
      <trkpt lat="42.29352" lon="0.0528">
        <ele>915.9</ele>
        <time>2015-09-24T08:24:39Z</time>
      </trkpt>
      <trkpt lat="42.29349" lon="0.0528">
        <ele>916.1</ele>
        <time>2015-09-24T08:24:41Z</time>
      </trkpt>
      <trkpt lat="42.29345" lon="0.05278">
        <ele>916.3</ele>
        <time>2015-09-24T08:24:43Z</time>
      </trkpt>
      <trkpt lat="42.29342" lon="0.05276">
        <ele>916.6</ele>
        <time>2015-09-24T08:24:45Z</time>
      </trkpt>
      <trkpt lat="42.29339" lon="0.05274">
        <ele>916.9</ele>
        <time>2015-09-24T08:24:47Z</time>
      </trkpt>
      <trkpt lat="42.29336" lon="0.05271">
        <ele>917.2</ele>
        <time>2015-09-24T08:24:49Z</time>
      </trkpt>
      <trkpt lat="42.29332" lon="0.05268">
        <ele>917.6</ele>
        <time>2015-09-24T08:24:51Z</time>
      </trkpt>
      <trkpt lat="42.29328" lon="0.05266">
        <ele>917.9</ele>
        <time>2015-09-24T08:24:53Z</time>
      </trkpt>
      <trkpt lat="42.29324" lon="0.05265">
        <ele>918.2</ele>
        <time>2015-09-24T08:24:55Z</time>
      </trkpt>
      <trkpt lat="42.29319" lon="0.05265">
        <ele>918.4</ele>
        <time>2015-09-24T08:24:57Z</time>
      </trkpt>
      <trkpt lat="42.29315" lon="0.05267">
        <ele>918.5</ele>
        <time>2015-09-24T08:24:59Z</time>
      </trkpt>
      <trkpt lat="42.29312" lon="0.05269">
        <ele>918.5</ele>
        <time>2015-09-24T08:25:00Z</time>
      </trkpt>
      <trkpt lat="42.29309" lon="0.0527">
        <ele>918.5</ele>
        <time>2015-09-24T08:25:01Z</time>
      </trkpt>
      <trkpt lat="42.29304" lon="0.05272">
        <ele>918.6</ele>
        <time>2015-09-24T08:25:03Z</time>
      </trkpt>
      <trkpt lat="42.29299" lon="0.05273">
        <ele>918.8</ele>
        <time>2015-09-24T08:25:05Z</time>
      </trkpt>
      <trkpt lat="42.29294" lon="0.05274">
        <ele>919</ele>
        <time>2015-09-24T08:25:07Z</time>
      </trkpt>
      <trkpt lat="42.29291" lon="0.05275">
        <ele>919</ele>
        <time>2015-09-24T08:25:08Z</time>
      </trkpt>
      <trkpt lat="42.29288" lon="0.05275">
        <ele>919</ele>
        <time>2015-09-24T08:25:09Z</time>
      </trkpt>
      <trkpt lat="42.29285" lon="0.05276">
        <ele>919.1</ele>
        <time>2015-09-24T08:25:10Z</time>
      </trkpt>
      <trkpt lat="42.29282" lon="0.05276">
        <ele>919.1</ele>
        <time>2015-09-24T08:25:11Z</time>
      </trkpt>
      <trkpt lat="42.29279" lon="0.05275">
        <ele>919.2</ele>
        <time>2015-09-24T08:25:12Z</time>
      </trkpt>
      <trkpt lat="42.29276" lon="0.05275">
        <ele>919.3</ele>
        <time>2015-09-24T08:25:13Z</time>
      </trkpt>
      <trkpt lat="42.29273" lon="0.05274">
        <ele>919.4</ele>
        <time>2015-09-24T08:25:14Z</time>
      </trkpt>
      <trkpt lat="42.2927" lon="0.05273">
        <ele>919.5</ele>
        <time>2015-09-24T08:25:15Z</time>
      </trkpt>
      <trkpt lat="42.29267" lon="0.05272">
        <ele>919.6</ele>
        <time>2015-09-24T08:25:16Z</time>
      </trkpt>
      <trkpt lat="42.29264" lon="0.05272">
        <ele>919.7</ele>
        <time>2015-09-24T08:25:17Z</time>
      </trkpt>
      <trkpt lat="42.29261" lon="0.05272">
        <ele>919.7</ele>
        <time>2015-09-24T08:25:18Z</time>
      </trkpt>
      <trkpt lat="42.29258" lon="0.05273">
        <ele>919.7</ele>
        <time>2015-09-24T08:25:19Z</time>
      </trkpt>
      <trkpt lat="42.29255" lon="0.05274">
        <ele>919.6</ele>
        <time>2015-09-24T08:25:20Z</time>
      </trkpt>
      <trkpt lat="42.29252" lon="0.05275">
        <ele>919.6</ele>
        <time>2015-09-24T08:25:21Z</time>
      </trkpt>
      <trkpt lat="42.2925" lon="0.05275">
        <ele>919.6</ele>
        <time>2015-09-24T08:25:22Z</time>
      </trkpt>
      <trkpt lat="42.29246" lon="0.05276">
        <ele>919.6</ele>
        <time>2015-09-24T08:25:23Z</time>
      </trkpt>
      <trkpt lat="42.29243" lon="0.05276">
        <ele>919.6</ele>
        <time>2015-09-24T08:25:24Z</time>
      </trkpt>
      <trkpt lat="42.2924" lon="0.05277">
        <ele>919.6</ele>
        <time>2015-09-24T08:25:25Z</time>
      </trkpt>
      <trkpt lat="42.29237" lon="0.05277">
        <ele>919.6</ele>
        <time>2015-09-24T08:25:26Z</time>
      </trkpt>
      <trkpt lat="42.29234" lon="0.05277">
        <ele>919.7</ele>
        <time>2015-09-24T08:25:27Z</time>
      </trkpt>
      <trkpt lat="42.29231" lon="0.05276">
        <ele>919.8</ele>
        <time>2015-09-24T08:25:28Z</time>
      </trkpt>
      <trkpt lat="42.29228" lon="0.05275">
        <ele>919.9</ele>
        <time>2015-09-24T08:25:29Z</time>
      </trkpt>
      <trkpt lat="42.29225" lon="0.05274">
        <ele>920.1</ele>
        <time>2015-09-24T08:25:30Z</time>
      </trkpt>
      <trkpt lat="42.2922" lon="0.05272">
        <ele>920.4</ele>
        <time>2015-09-24T08:25:32Z</time>
      </trkpt>
      <trkpt lat="42.29215" lon="0.0527">
        <ele>920.7</ele>
        <time>2015-09-24T08:25:34Z</time>
      </trkpt>
      <trkpt lat="42.29213" lon="0.05269">
        <ele>920.9</ele>
        <time>2015-09-24T08:25:35Z</time>
      </trkpt>
      <trkpt lat="42.2921" lon="0.05268">
        <ele>921.1</ele>
        <time>2015-09-24T08:25:36Z</time>
      </trkpt>
      <trkpt lat="42.29207" lon="0.05267">
        <ele>921.3</ele>
        <time>2015-09-24T08:25:37Z</time>
      </trkpt>
      <trkpt lat="42.29205" lon="0.05266">
        <ele>921.5</ele>
        <time>2015-09-24T08:25:38Z</time>
      </trkpt>
      <trkpt lat="42.29202" lon="0.05265">
        <ele>921.7</ele>
        <time>2015-09-24T08:25:39Z</time>
      </trkpt>
      <trkpt lat="42.29199" lon="0.05264">
        <ele>921.9</ele>
        <time>2015-09-24T08:25:40Z</time>
      </trkpt>
      <trkpt lat="42.29196" lon="0.05263">
        <ele>922.1</ele>
        <time>2015-09-24T08:25:41Z</time>
      </trkpt>
      <trkpt lat="42.29194" lon="0.05262">
        <ele>922.2</ele>
        <time>2015-09-24T08:25:42Z</time>
      </trkpt>
      <trkpt lat="42.29191" lon="0.05261">
        <ele>922.4</ele>
        <time>2015-09-24T08:25:43Z</time>
      </trkpt>
      <trkpt lat="42.29188" lon="0.05261">
        <ele>922.5</ele>
        <time>2015-09-24T08:25:44Z</time>
      </trkpt>
      <trkpt lat="42.29184" lon="0.0526">
        <ele>922.7</ele>
        <time>2015-09-24T08:25:45Z</time>
      </trkpt>
      <trkpt lat="42.29181" lon="0.05259">
        <ele>922.9</ele>
        <time>2015-09-24T08:25:46Z</time>
      </trkpt>
      <trkpt lat="42.29178" lon="0.05258">
        <ele>923.1</ele>
        <time>2015-09-24T08:25:47Z</time>
      </trkpt>
      <trkpt lat="42.29175" lon="0.05257">
        <ele>923.3</ele>
        <time>2015-09-24T08:25:48Z</time>
      </trkpt>
      <trkpt lat="42.29171" lon="0.05256">
        <ele>923.5</ele>
        <time>2015-09-24T08:25:49Z</time>
      </trkpt>
      <trkpt lat="42.29168" lon="0.05256">
        <ele>923.7</ele>
        <time>2015-09-24T08:25:50Z</time>
      </trkpt>
      <trkpt lat="42.29165" lon="0.05255">
        <ele>923.8</ele>
        <time>2015-09-24T08:25:51Z</time>
      </trkpt>
      <trkpt lat="42.29161" lon="0.05255">
        <ele>924</ele>
        <time>2015-09-24T08:25:52Z</time>
      </trkpt>
      <trkpt lat="42.29158" lon="0.05254">
        <ele>924.1</ele>
        <time>2015-09-24T08:25:53Z</time>
      </trkpt>
      <trkpt lat="42.29155" lon="0.05254">
        <ele>924.2</ele>
        <time>2015-09-24T08:25:54Z</time>
      </trkpt>
      <trkpt lat="42.29151" lon="0.05254">
        <ele>924.2</ele>
        <time>2015-09-24T08:25:55Z</time>
      </trkpt>
      <trkpt lat="42.29148" lon="0.05254">
        <ele>924.3</ele>
        <time>2015-09-24T08:25:56Z</time>
      </trkpt>
      <trkpt lat="42.29145" lon="0.05254">
        <ele>924.5</ele>
        <time>2015-09-24T08:25:57Z</time>
      </trkpt>
      <trkpt lat="42.29142" lon="0.05254">
        <ele>924.6</ele>
        <time>2015-09-24T08:25:58Z</time>
      </trkpt>
      <trkpt lat="42.29139" lon="0.05253">
        <ele>924.7</ele>
        <time>2015-09-24T08:25:59Z</time>
      </trkpt>
      <trkpt lat="42.29136" lon="0.05253">
        <ele>924.8</ele>
        <time>2015-09-24T08:26:00Z</time>
      </trkpt>
      <trkpt lat="42.29133" lon="0.05253">
        <ele>924.9</ele>
        <time>2015-09-24T08:26:01Z</time>
      </trkpt>
      <trkpt lat="42.2913" lon="0.05252">
        <ele>925.1</ele>
        <time>2015-09-24T08:26:02Z</time>
      </trkpt>
      <trkpt lat="42.29127" lon="0.05251">
        <ele>925.3</ele>
        <time>2015-09-24T08:26:03Z</time>
      </trkpt>
      <trkpt lat="42.29124" lon="0.0525">
        <ele>925.5</ele>
        <time>2015-09-24T08:26:04Z</time>
      </trkpt>
      <trkpt lat="42.29122" lon="0.05249">
        <ele>925.6</ele>
        <time>2015-09-24T08:26:05Z</time>
      </trkpt>
      <trkpt lat="42.29119" lon="0.05249">
        <ele>925.8</ele>
        <time>2015-09-24T08:26:06Z</time>
      </trkpt>
      <trkpt lat="42.29116" lon="0.05248">
        <ele>925.9</ele>
        <time>2015-09-24T08:26:07Z</time>
      </trkpt>
      <trkpt lat="42.29113" lon="0.05248">
        <ele>926</ele>
        <time>2015-09-24T08:26:08Z</time>
      </trkpt>
      <trkpt lat="42.2911" lon="0.05247">
        <ele>926.1</ele>
        <time>2015-09-24T08:26:09Z</time>
      </trkpt>
      <trkpt lat="42.29108" lon="0.05247">
        <ele>926.2</ele>
        <time>2015-09-24T08:26:10Z</time>
      </trkpt>
      <trkpt lat="42.29105" lon="0.05247">
        <ele>926.3</ele>
        <time>2015-09-24T08:26:11Z</time>
      </trkpt>
      <trkpt lat="42.29102" lon="0.05246">
        <ele>926.3</ele>
        <time>2015-09-24T08:26:12Z</time>
      </trkpt>
      <trkpt lat="42.29097" lon="0.05245">
        <ele>926.5</ele>
        <time>2015-09-24T08:26:14Z</time>
      </trkpt>
      <trkpt lat="42.29092" lon="0.05243">
        <ele>926.9</ele>
        <time>2015-09-24T08:26:16Z</time>
      </trkpt>
      <trkpt lat="42.29088" lon="0.05241">
        <ele>927.2</ele>
        <time>2015-09-24T08:26:18Z</time>
      </trkpt>
      <trkpt lat="42.29084" lon="0.05241">
        <ele>927.3</ele>
        <time>2015-09-24T08:26:20Z</time>
      </trkpt>
      <trkpt lat="42.29079" lon="0.0524">
        <ele>927.5</ele>
        <time>2015-09-24T08:26:22Z</time>
      </trkpt>
      <trkpt lat="42.29076" lon="0.0524">
        <ele>927.6</ele>
        <time>2015-09-24T08:26:23Z</time>
      </trkpt>
      <trkpt lat="42.29071" lon="0.05239">
        <ele>927.7</ele>
        <time>2015-09-24T08:26:25Z</time>
      </trkpt>
      <trkpt lat="42.29066" lon="0.05238">
        <ele>927.9</ele>
        <time>2015-09-24T08:26:27Z</time>
      </trkpt>
      <trkpt lat="42.29063" lon="0.05238">
        <ele>927.9</ele>
        <time>2015-09-24T08:26:28Z</time>
      </trkpt>
      <trkpt lat="42.2906" lon="0.05238">
        <ele>927.9</ele>
        <time>2015-09-24T08:26:29Z</time>
      </trkpt>
      <trkpt lat="42.29057" lon="0.05238">
        <ele>927.9</ele>
        <time>2015-09-24T08:26:30Z</time>
      </trkpt>
      <trkpt lat="42.29054" lon="0.05238">
        <ele>927.9</ele>
        <time>2015-09-24T08:26:31Z</time>
      </trkpt>
      <trkpt lat="42.29051" lon="0.05239">
        <ele>927.9</ele>
        <time>2015-09-24T08:26:32Z</time>
      </trkpt>
      <trkpt lat="42.29047" lon="0.05239">
        <ele>927.9</ele>
        <time>2015-09-24T08:26:33Z</time>
      </trkpt>
      <trkpt lat="42.29044" lon="0.0524">
        <ele>927.8</ele>
        <time>2015-09-24T08:26:34Z</time>
      </trkpt>
      <trkpt lat="42.29041" lon="0.05241">
        <ele>927.8</ele>
        <time>2015-09-24T08:26:35Z</time>
      </trkpt>
      <trkpt lat="42.29037" lon="0.05242">
        <ele>927.7</ele>
        <time>2015-09-24T08:26:36Z</time>
      </trkpt>
      <trkpt lat="42.29034" lon="0.05243">
        <ele>927.6</ele>
        <time>2015-09-24T08:26:37Z</time>
      </trkpt>
      <trkpt lat="42.2903" lon="0.05244">
        <ele>927.5</ele>
        <time>2015-09-24T08:26:38Z</time>
      </trkpt>
      <trkpt lat="42.29027" lon="0.05246">
        <ele>927.4</ele>
        <time>2015-09-24T08:26:39Z</time>
      </trkpt>
      <trkpt lat="42.29023" lon="0.05248">
        <ele>927.3</ele>
        <time>2015-09-24T08:26:40Z</time>
      </trkpt>
      <trkpt lat="42.2902" lon="0.0525">
        <ele>927.1</ele>
        <time>2015-09-24T08:26:41Z</time>
      </trkpt>
      <trkpt lat="42.29017" lon="0.05253">
        <ele>926.9</ele>
        <time>2015-09-24T08:26:42Z</time>
      </trkpt>
      <trkpt lat="42.29013" lon="0.05255">
        <ele>926.8</ele>
        <time>2015-09-24T08:26:43Z</time>
      </trkpt>
      <trkpt lat="42.2901" lon="0.05257">
        <ele>926.7</ele>
        <time>2015-09-24T08:26:44Z</time>
      </trkpt>
      <trkpt lat="42.29006" lon="0.05258">
        <ele>926.7</ele>
        <time>2015-09-24T08:26:45Z</time>
      </trkpt>
      <trkpt lat="42.29003" lon="0.05257">
        <ele>926.9</ele>
        <time>2015-09-24T08:26:46Z</time>
      </trkpt>
      <trkpt lat="42.28999" lon="0.05256">
        <ele>927.2</ele>
        <time>2015-09-24T08:26:48Z</time>
      </trkpt>
      <trkpt lat="42.28995" lon="0.05253">
        <ele>927.6</ele>
        <time>2015-09-24T08:26:50Z</time>
      </trkpt>
      <trkpt lat="42.28991" lon="0.05251">
        <ele>927.9</ele>
        <time>2015-09-24T08:26:52Z</time>
      </trkpt>
      <trkpt lat="42.28988" lon="0.05249">
        <ele>928.2</ele>
        <time>2015-09-24T08:26:54Z</time>
      </trkpt>
      <trkpt lat="42.28984" lon="0.05247">
        <ele>928.5</ele>
        <time>2015-09-24T08:26:56Z</time>
      </trkpt>
      <trkpt lat="42.28981" lon="0.05245">
        <ele>928.7</ele>
        <time>2015-09-24T08:26:58Z</time>
      </trkpt>
      <trkpt lat="42.28977" lon="0.05244">
        <ele>928.9</ele>
        <time>2015-09-24T08:27:00Z</time>
      </trkpt>
      <trkpt lat="42.28973" lon="0.05244">
        <ele>929.1</ele>
        <time>2015-09-24T08:27:02Z</time>
      </trkpt>
      <trkpt lat="42.28969" lon="0.05243">
        <ele>929.2</ele>
        <time>2015-09-24T08:27:04Z</time>
      </trkpt>
      <trkpt lat="42.28965" lon="0.05242">
        <ele>929.4</ele>
        <time>2015-09-24T08:27:06Z</time>
      </trkpt>
      <trkpt lat="42.28961" lon="0.05242">
        <ele>929.6</ele>
        <time>2015-09-24T08:27:08Z</time>
      </trkpt>
      <trkpt lat="42.28957" lon="0.0524">
        <ele>929.8</ele>
        <time>2015-09-24T08:27:10Z</time>
      </trkpt>
      <trkpt lat="42.28953" lon="0.05239">
        <ele>930.1</ele>
        <time>2015-09-24T08:27:12Z</time>
      </trkpt>
      <trkpt lat="42.28949" lon="0.05237">
        <ele>930.4</ele>
        <time>2015-09-24T08:27:14Z</time>
      </trkpt>
      <trkpt lat="42.28945" lon="0.05236">
        <ele>930.7</ele>
        <time>2015-09-24T08:27:16Z</time>
      </trkpt>
      <trkpt lat="42.2894" lon="0.05235">
        <ele>931</ele>
        <time>2015-09-24T08:27:18Z</time>
      </trkpt>
      <trkpt lat="42.28936" lon="0.05234">
        <ele>931.2</ele>
        <time>2015-09-24T08:27:20Z</time>
      </trkpt>
      <trkpt lat="42.28931" lon="0.05234">
        <ele>931.4</ele>
        <time>2015-09-24T08:27:22Z</time>
      </trkpt>
      <trkpt lat="42.28929" lon="0.05234">
        <ele>931.6</ele>
        <time>2015-09-24T08:27:23Z</time>
      </trkpt>
      <trkpt lat="42.28923" lon="0.05234">
        <ele>931.8</ele>
        <time>2015-09-24T08:27:25Z</time>
      </trkpt>
      <trkpt lat="42.28918" lon="0.05234">
        <ele>932</ele>
        <time>2015-09-24T08:27:27Z</time>
      </trkpt>
      <trkpt lat="42.28913" lon="0.05235">
        <ele>932.3</ele>
        <time>2015-09-24T08:27:29Z</time>
      </trkpt>
      <trkpt lat="42.28908" lon="0.05235">
        <ele>932.5</ele>
        <time>2015-09-24T08:27:31Z</time>
      </trkpt>
      <trkpt lat="42.28903" lon="0.05234">
        <ele>932.8</ele>
        <time>2015-09-24T08:27:33Z</time>
      </trkpt>
      <trkpt lat="42.28899" lon="0.05232">
        <ele>933</ele>
        <time>2015-09-24T08:27:35Z</time>
      </trkpt>
      <trkpt lat="42.28894" lon="0.05231">
        <ele>933.3</ele>
        <time>2015-09-24T08:27:37Z</time>
      </trkpt>
      <trkpt lat="42.28889" lon="0.05231">
        <ele>933.5</ele>
        <time>2015-09-24T08:27:39Z</time>
      </trkpt>
      <trkpt lat="42.28886" lon="0.05232">
        <ele>933.7</ele>
        <time>2015-09-24T08:27:40Z</time>
      </trkpt>
      <trkpt lat="42.28883" lon="0.05233">
        <ele>933.8</ele>
        <time>2015-09-24T08:27:41Z</time>
      </trkpt>
      <trkpt lat="42.2888" lon="0.05234">
        <ele>933.8</ele>
        <time>2015-09-24T08:27:42Z</time>
      </trkpt>
      <trkpt lat="42.28877" lon="0.05236">
        <ele>933.9</ele>
        <time>2015-09-24T08:27:43Z</time>
      </trkpt>
      <trkpt lat="42.28874" lon="0.05237">
        <ele>934</ele>
        <time>2015-09-24T08:27:44Z</time>
      </trkpt>
      <trkpt lat="42.28871" lon="0.05238">
        <ele>934</ele>
        <time>2015-09-24T08:27:45Z</time>
      </trkpt>
      <trkpt lat="42.28869" lon="0.05239">
        <ele>934</ele>
        <time>2015-09-24T08:27:46Z</time>
      </trkpt>
      <trkpt lat="42.28866" lon="0.0524">
        <ele>934</ele>
        <time>2015-09-24T08:27:47Z</time>
      </trkpt>
      <trkpt lat="42.28863" lon="0.0524">
        <ele>934</ele>
        <time>2015-09-24T08:27:48Z</time>
      </trkpt>
      <trkpt lat="42.2886" lon="0.05241">
        <ele>934.1</ele>
        <time>2015-09-24T08:27:49Z</time>
      </trkpt>
      <trkpt lat="42.28857" lon="0.05241">
        <ele>934.1</ele>
        <time>2015-09-24T08:27:50Z</time>
      </trkpt>
      <trkpt lat="42.28854" lon="0.05241">
        <ele>934.1</ele>
        <time>2015-09-24T08:27:51Z</time>
      </trkpt>
      <trkpt lat="42.28851" lon="0.05241">
        <ele>934.2</ele>
        <time>2015-09-24T08:27:52Z</time>
      </trkpt>
      <trkpt lat="42.28848" lon="0.05241">
        <ele>934.2</ele>
        <time>2015-09-24T08:27:53Z</time>
      </trkpt>
      <trkpt lat="42.28845" lon="0.05242">
        <ele>934.2</ele>
        <time>2015-09-24T08:27:54Z</time>
      </trkpt>
      <trkpt lat="42.28842" lon="0.05243">
        <ele>934.2</ele>
        <time>2015-09-24T08:27:55Z</time>
      </trkpt>
      <trkpt lat="42.28839" lon="0.05244">
        <ele>934.2</ele>
        <time>2015-09-24T08:27:56Z</time>
      </trkpt>
      <trkpt lat="42.28836" lon="0.05246">
        <ele>934.2</ele>
        <time>2015-09-24T08:27:57Z</time>
      </trkpt>
      <trkpt lat="42.28833" lon="0.05248">
        <ele>934.1</ele>
        <time>2015-09-24T08:27:58Z</time>
      </trkpt>
      <trkpt lat="42.28829" lon="0.0525">
        <ele>934.1</ele>
        <time>2015-09-24T08:27:59Z</time>
      </trkpt>
      <trkpt lat="42.28826" lon="0.05251">
        <ele>934.1</ele>
        <time>2015-09-24T08:28:00Z</time>
      </trkpt>
      <trkpt lat="42.28822" lon="0.05251">
        <ele>934.1</ele>
        <time>2015-09-24T08:28:01Z</time>
      </trkpt>
      <trkpt lat="42.28819" lon="0.05251">
        <ele>934.1</ele>
        <time>2015-09-24T08:28:02Z</time>
      </trkpt>
      <trkpt lat="42.28815" lon="0.05251">
        <ele>934.2</ele>
        <time>2015-09-24T08:28:03Z</time>
      </trkpt>
      <trkpt lat="42.28811" lon="0.0525">
        <ele>934.3</ele>
        <time>2015-09-24T08:28:04Z</time>
      </trkpt>
      <trkpt lat="42.28808" lon="0.05249">
        <ele>934.4</ele>
        <time>2015-09-24T08:28:05Z</time>
      </trkpt>
      <trkpt lat="42.28805" lon="0.05248">
        <ele>934.5</ele>
        <time>2015-09-24T08:28:06Z</time>
      </trkpt>
      <trkpt lat="42.28801" lon="0.05246">
        <ele>934.6</ele>
        <time>2015-09-24T08:28:07Z</time>
      </trkpt>
      <trkpt lat="42.28798" lon="0.05245">
        <ele>934.7</ele>
        <time>2015-09-24T08:28:08Z</time>
      </trkpt>
      <trkpt lat="42.28795" lon="0.05243">
        <ele>934.9</ele>
        <time>2015-09-24T08:28:09Z</time>
      </trkpt>
      <trkpt lat="42.28792" lon="0.05242">
        <ele>935</ele>
        <time>2015-09-24T08:28:10Z</time>
      </trkpt>
      <trkpt lat="42.28788" lon="0.05241">
        <ele>934.9</ele>
        <time>2015-09-24T08:28:11Z</time>
      </trkpt>
      <trkpt lat="42.28785" lon="0.05241">
        <ele>934.8</ele>
        <time>2015-09-24T08:28:12Z</time>
      </trkpt>
      <trkpt lat="42.28781" lon="0.05241">
        <ele>934.6</ele>
        <time>2015-09-24T08:28:13Z</time>
      </trkpt>
      <trkpt lat="42.28777" lon="0.05241">
        <ele>934.5</ele>
        <time>2015-09-24T08:28:14Z</time>
      </trkpt>
      <trkpt lat="42.28773" lon="0.05241">
        <ele>934.3</ele>
        <time>2015-09-24T08:28:15Z</time>
      </trkpt>
      <trkpt lat="42.28769" lon="0.0524">
        <ele>934.2</ele>
        <time>2015-09-24T08:28:16Z</time>
      </trkpt>
      <trkpt lat="42.28766" lon="0.05238">
        <ele>934.2</ele>
        <time>2015-09-24T08:28:17Z</time>
      </trkpt>
      <trkpt lat="42.28762" lon="0.05236">
        <ele>934.1</ele>
        <time>2015-09-24T08:28:18Z</time>
      </trkpt>
      <trkpt lat="42.28758" lon="0.05235">
        <ele>934.1</ele>
        <time>2015-09-24T08:28:19Z</time>
      </trkpt>
      <trkpt lat="42.28754" lon="0.05233">
        <ele>934</ele>
        <time>2015-09-24T08:28:20Z</time>
      </trkpt>
      <trkpt lat="42.2875" lon="0.05231">
        <ele>934</ele>
        <time>2015-09-24T08:28:21Z</time>
      </trkpt>
      <trkpt lat="42.28746" lon="0.05231">
        <ele>933.9</ele>
        <time>2015-09-24T08:28:22Z</time>
      </trkpt>
      <trkpt lat="42.28742" lon="0.0523">
        <ele>933.7</ele>
        <time>2015-09-24T08:28:23Z</time>
      </trkpt>
      <trkpt lat="42.28738" lon="0.05231">
        <ele>933.5</ele>
        <time>2015-09-24T08:28:24Z</time>
      </trkpt>
      <trkpt lat="42.28731" lon="0.05233">
        <ele>933.2</ele>
        <time>2015-09-24T08:28:25Z</time>
      </trkpt>
      <trkpt lat="42.28726" lon="0.05232">
        <ele>933</ele>
        <time>2015-09-24T08:28:26Z</time>
      </trkpt>
      <trkpt lat="42.28721" lon="0.05231">
        <ele>932.9</ele>
        <time>2015-09-24T08:28:27Z</time>
      </trkpt>
      <trkpt lat="42.28716" lon="0.05229">
        <ele>932.8</ele>
        <time>2015-09-24T08:28:28Z</time>
      </trkpt>
      <trkpt lat="42.28712" lon="0.05228">
        <ele>932.7</ele>
        <time>2015-09-24T08:28:29Z</time>
      </trkpt>
      <trkpt lat="42.28707" lon="0.05227">
        <ele>932.6</ele>
        <time>2015-09-24T08:28:30Z</time>
      </trkpt>
      <trkpt lat="42.28702" lon="0.05227">
        <ele>932.5</ele>
        <time>2015-09-24T08:28:31Z</time>
      </trkpt>
      <trkpt lat="42.28697" lon="0.05226">
        <ele>932.4</ele>
        <time>2015-09-24T08:28:32Z</time>
      </trkpt>
      <trkpt lat="42.28692" lon="0.05224">
        <ele>932.5</ele>
        <time>2015-09-24T08:28:33Z</time>
      </trkpt>
      <trkpt lat="42.28687" lon="0.05221">
        <ele>932.5</ele>
        <time>2015-09-24T08:28:34Z</time>
      </trkpt>
      <trkpt lat="42.28682" lon="0.05219">
        <ele>932.6</ele>
        <time>2015-09-24T08:28:35Z</time>
      </trkpt>
      <trkpt lat="42.28678" lon="0.05216">
        <ele>932.7</ele>
        <time>2015-09-24T08:28:36Z</time>
      </trkpt>
      <trkpt lat="42.28674" lon="0.05214">
        <ele>932.8</ele>
        <time>2015-09-24T08:28:37Z</time>
      </trkpt>
      <trkpt lat="42.2867" lon="0.05211">
        <ele>932.8</ele>
        <time>2015-09-24T08:28:38Z</time>
      </trkpt>
      <trkpt lat="42.28665" lon="0.05209">
        <ele>932.9</ele>
        <time>2015-09-24T08:28:39Z</time>
      </trkpt>
      <trkpt lat="42.28661" lon="0.05206">
        <ele>932.9</ele>
        <time>2015-09-24T08:28:40Z</time>
      </trkpt>
      <trkpt lat="42.28657" lon="0.05204">
        <ele>932.9</ele>
        <time>2015-09-24T08:28:41Z</time>
      </trkpt>
      <trkpt lat="42.28653" lon="0.05202">
        <ele>932.8</ele>
        <time>2015-09-24T08:28:42Z</time>
      </trkpt>
      <trkpt lat="42.28648" lon="0.052">
        <ele>932.8</ele>
        <time>2015-09-24T08:28:43Z</time>
      </trkpt>
      <trkpt lat="42.28644" lon="0.05198">
        <ele>932.8</ele>
        <time>2015-09-24T08:28:44Z</time>
      </trkpt>
      <trkpt lat="42.2864" lon="0.05196">
        <ele>932.7</ele>
        <time>2015-09-24T08:28:45Z</time>
      </trkpt>
      <trkpt lat="42.28637" lon="0.05194">
        <ele>932.7</ele>
        <time>2015-09-24T08:28:46Z</time>
      </trkpt>
      <trkpt lat="42.28633" lon="0.05191">
        <ele>932.6</ele>
        <time>2015-09-24T08:28:47Z</time>
      </trkpt>
      <trkpt lat="42.28629" lon="0.05189">
        <ele>932.6</ele>
        <time>2015-09-24T08:28:48Z</time>
      </trkpt>
      <trkpt lat="42.28625" lon="0.05187">
        <ele>932.5</ele>
        <time>2015-09-24T08:28:49Z</time>
      </trkpt>
      <trkpt lat="42.28622" lon="0.05185">
        <ele>932.5</ele>
        <time>2015-09-24T08:28:50Z</time>
      </trkpt>
      <trkpt lat="42.28618" lon="0.05182">
        <ele>932.4</ele>
        <time>2015-09-24T08:28:51Z</time>
      </trkpt>
      <trkpt lat="42.28615" lon="0.0518">
        <ele>932.3</ele>
        <time>2015-09-24T08:28:52Z</time>
      </trkpt>
      <trkpt lat="42.28611" lon="0.05177">
        <ele>932.3</ele>
        <time>2015-09-24T08:28:53Z</time>
      </trkpt>
      <trkpt lat="42.28608" lon="0.05175">
        <ele>932.2</ele>
        <time>2015-09-24T08:28:54Z</time>
      </trkpt>
      <trkpt lat="42.28604" lon="0.05172">
        <ele>932.1</ele>
        <time>2015-09-24T08:28:55Z</time>
      </trkpt>
      <trkpt lat="42.286" lon="0.0517">
        <ele>932</ele>
        <time>2015-09-24T08:28:56Z</time>
      </trkpt>
      <trkpt lat="42.28596" lon="0.05168">
        <ele>931.9</ele>
        <time>2015-09-24T08:28:57Z</time>
      </trkpt>
      <trkpt lat="42.28592" lon="0.05166">
        <ele>931.8</ele>
        <time>2015-09-24T08:28:58Z</time>
      </trkpt>
      <trkpt lat="42.28588" lon="0.05164">
        <ele>931.7</ele>
        <time>2015-09-24T08:28:59Z</time>
      </trkpt>
      <trkpt lat="42.28584" lon="0.05163">
        <ele>931.6</ele>
        <time>2015-09-24T08:29:00Z</time>
      </trkpt>
      <trkpt lat="42.2858" lon="0.05161">
        <ele>931.4</ele>
        <time>2015-09-24T08:29:01Z</time>
      </trkpt>
      <trkpt lat="42.28576" lon="0.05159">
        <ele>931.3</ele>
        <time>2015-09-24T08:29:02Z</time>
      </trkpt>
      <trkpt lat="42.28572" lon="0.05156">
        <ele>931.2</ele>
        <time>2015-09-24T08:29:03Z</time>
      </trkpt>
      <trkpt lat="42.28569" lon="0.05153">
        <ele>931.1</ele>
        <time>2015-09-24T08:29:04Z</time>
      </trkpt>
      <trkpt lat="42.28565" lon="0.0515">
        <ele>931</ele>
        <time>2015-09-24T08:29:05Z</time>
      </trkpt>
      <trkpt lat="42.28562" lon="0.05146">
        <ele>930.8</ele>
        <time>2015-09-24T08:29:06Z</time>
      </trkpt>
      <trkpt lat="42.28559" lon="0.05142">
        <ele>930.7</ele>
        <time>2015-09-24T08:29:07Z</time>
      </trkpt>
      <trkpt lat="42.28556" lon="0.05138">
        <ele>930.6</ele>
        <time>2015-09-24T08:29:08Z</time>
      </trkpt>
      <trkpt lat="42.28552" lon="0.05134">
        <ele>930.5</ele>
        <time>2015-09-24T08:29:09Z</time>
      </trkpt>
      <trkpt lat="42.28549" lon="0.05131">
        <ele>930.4</ele>
        <time>2015-09-24T08:29:10Z</time>
      </trkpt>
      <trkpt lat="42.28546" lon="0.05127">
        <ele>930.2</ele>
        <time>2015-09-24T08:29:11Z</time>
      </trkpt>
      <trkpt lat="42.28543" lon="0.05123">
        <ele>929.8</ele>
        <time>2015-09-24T08:29:12Z</time>
      </trkpt>
      <trkpt lat="42.28539" lon="0.0512">
        <ele>928.6</ele>
        <time>2015-09-24T08:29:13Z</time>
      </trkpt>
      <trkpt lat="42.28536" lon="0.05117">
        <ele>927.3</ele>
        <time>2015-09-24T08:29:14Z</time>
      </trkpt>
      <trkpt lat="42.28533" lon="0.05113">
        <ele>925.8</ele>
        <time>2015-09-24T08:29:15Z</time>
      </trkpt>
      <trkpt lat="42.2853" lon="0.05109">
        <ele>924.4</ele>
        <time>2015-09-24T08:29:16Z</time>
      </trkpt>
      <trkpt lat="42.28527" lon="0.05105">
        <ele>922.8</ele>
        <time>2015-09-24T08:29:17Z</time>
      </trkpt>
      <trkpt lat="42.28525" lon="0.05101">
        <ele>921.3</ele>
        <time>2015-09-24T08:29:18Z</time>
      </trkpt>
      <trkpt lat="42.28523" lon="0.05096">
        <ele>919.7</ele>
        <time>2015-09-24T08:29:19Z</time>
      </trkpt>
      <trkpt lat="42.2852" lon="0.05091">
        <ele>918.1</ele>
        <time>2015-09-24T08:29:20Z</time>
      </trkpt>
      <trkpt lat="42.28519" lon="0.05087">
        <ele>916.7</ele>
        <time>2015-09-24T08:29:21Z</time>
      </trkpt>
      <trkpt lat="42.28517" lon="0.05083">
        <ele>915.2</ele>
        <time>2015-09-24T08:29:22Z</time>
      </trkpt>
      <trkpt lat="42.28514" lon="0.05079">
        <ele>913.6</ele>
        <time>2015-09-24T08:29:23Z</time>
      </trkpt>
      <trkpt lat="42.28511" lon="0.05076">
        <ele>911.9</ele>
        <time>2015-09-24T08:29:24Z</time>
      </trkpt>
      <trkpt lat="42.28508" lon="0.05074">
        <ele>910.3</ele>
        <time>2015-09-24T08:29:25Z</time>
      </trkpt>
      <trkpt lat="42.28504" lon="0.05073">
        <ele>908.9</ele>
        <time>2015-09-24T08:29:26Z</time>
      </trkpt>
      <trkpt lat="42.28499" lon="0.05074">
        <ele>907.7</ele>
        <time>2015-09-24T08:29:27Z</time>
      </trkpt>
      <trkpt lat="42.28495" lon="0.05075">
        <ele>906.8</ele>
        <time>2015-09-24T08:29:28Z</time>
      </trkpt>
      <trkpt lat="42.28491" lon="0.05077">
        <ele>906.2</ele>
        <time>2015-09-24T08:29:29Z</time>
      </trkpt>
      <trkpt lat="42.28487" lon="0.05079">
        <ele>905.7</ele>
        <time>2015-09-24T08:29:30Z</time>
      </trkpt>
      <trkpt lat="42.28483" lon="0.05082">
        <ele>905.2</ele>
        <time>2015-09-24T08:29:31Z</time>
      </trkpt>
      <trkpt lat="42.28479" lon="0.05084">
        <ele>904.7</ele>
        <time>2015-09-24T08:29:32Z</time>
      </trkpt>
      <trkpt lat="42.28475" lon="0.05087">
        <ele>904.3</ele>
        <time>2015-09-24T08:29:33Z</time>
      </trkpt>
      <trkpt lat="42.28469" lon="0.0509">
        <ele>903.9</ele>
        <time>2015-09-24T08:29:34Z</time>
      </trkpt>
      <trkpt lat="42.28465" lon="0.05093">
        <ele>903.4</ele>
        <time>2015-09-24T08:29:35Z</time>
      </trkpt>
      <trkpt lat="42.2846" lon="0.05095">
        <ele>903</ele>
        <time>2015-09-24T08:29:36Z</time>
      </trkpt>
      <trkpt lat="42.28456" lon="0.05097">
        <ele>902.6</ele>
        <time>2015-09-24T08:29:37Z</time>
      </trkpt>
      <trkpt lat="42.28452" lon="0.05101">
        <ele>902</ele>
        <time>2015-09-24T08:29:38Z</time>
      </trkpt>
      <trkpt lat="42.28448" lon="0.05104">
        <ele>901.3</ele>
        <time>2015-09-24T08:29:39Z</time>
      </trkpt>
      <trkpt lat="42.28444" lon="0.05108">
        <ele>901.1</ele>
        <time>2015-09-24T08:29:40Z</time>
      </trkpt>
      <trkpt lat="42.2844" lon="0.05111">
        <ele>900.9</ele>
        <time>2015-09-24T08:29:41Z</time>
      </trkpt>
      <trkpt lat="42.28437" lon="0.05115">
        <ele>900.8</ele>
        <time>2015-09-24T08:29:42Z</time>
      </trkpt>
      <trkpt lat="42.28433" lon="0.05118">
        <ele>900.6</ele>
        <time>2015-09-24T08:29:43Z</time>
      </trkpt>
      <trkpt lat="42.28429" lon="0.05121">
        <ele>900.4</ele>
        <time>2015-09-24T08:29:44Z</time>
      </trkpt>
      <trkpt lat="42.28426" lon="0.05124">
        <ele>900.3</ele>
        <time>2015-09-24T08:29:45Z</time>
      </trkpt>
      <trkpt lat="42.28422" lon="0.05127">
        <ele>899.6</ele>
        <time>2015-09-24T08:29:46Z</time>
      </trkpt>
      <trkpt lat="42.28418" lon="0.0513">
        <ele>898.8</ele>
        <time>2015-09-24T08:29:47Z</time>
      </trkpt>
      <trkpt lat="42.28414" lon="0.05133">
        <ele>898</ele>
        <time>2015-09-24T08:29:48Z</time>
      </trkpt>
      <trkpt lat="42.2841" lon="0.05136">
        <ele>897.6</ele>
        <time>2015-09-24T08:29:49Z</time>
      </trkpt>
      <trkpt lat="42.28406" lon="0.05139">
        <ele>897.2</ele>
        <time>2015-09-24T08:29:50Z</time>
      </trkpt>
      <trkpt lat="42.28401" lon="0.05144">
        <ele>897.1</ele>
        <time>2015-09-24T08:29:51Z</time>
      </trkpt>
      <trkpt lat="42.28397" lon="0.05147">
        <ele>896.9</ele>
        <time>2015-09-24T08:29:52Z</time>
      </trkpt>
      <trkpt lat="42.28394" lon="0.0515">
        <ele>896.9</ele>
        <time>2015-09-24T08:29:53Z</time>
      </trkpt>
      <trkpt lat="42.2839" lon="0.05154">
        <ele>897.3</ele>
        <time>2015-09-24T08:29:54Z</time>
      </trkpt>
      <trkpt lat="42.28386" lon="0.05159">
        <ele>897.7</ele>
        <time>2015-09-24T08:29:55Z</time>
      </trkpt>
      <trkpt lat="42.28381" lon="0.05163">
        <ele>898</ele>
        <time>2015-09-24T08:29:56Z</time>
      </trkpt>
      <trkpt lat="42.28376" lon="0.05165">
        <ele>897.6</ele>
        <time>2015-09-24T08:29:57Z</time>
      </trkpt>
      <trkpt lat="42.28371" lon="0.05166">
        <ele>897.6</ele>
        <time>2015-09-24T08:29:58Z</time>
      </trkpt>
      <trkpt lat="42.28364" lon="0.05168">
        <ele>897.7</ele>
        <time>2015-09-24T08:29:59Z</time>
      </trkpt>
      <trkpt lat="42.28359" lon="0.05168">
        <ele>897.4</ele>
        <time>2015-09-24T08:30:00Z</time>
      </trkpt>
      <trkpt lat="42.28354" lon="0.05168">
        <ele>897.1</ele>
        <time>2015-09-24T08:30:01Z</time>
      </trkpt>
      <trkpt lat="42.28349" lon="0.05169">
        <ele>896.9</ele>
        <time>2015-09-24T08:30:02Z</time>
      </trkpt>
      <trkpt lat="42.28343" lon="0.05171">
        <ele>897.2</ele>
        <time>2015-09-24T08:30:03Z</time>
      </trkpt>
      <trkpt lat="42.28338" lon="0.05172">
        <ele>897.3</ele>
        <time>2015-09-24T08:30:04Z</time>
      </trkpt>
      <trkpt lat="42.28332" lon="0.05173">
        <ele>897.5</ele>
        <time>2015-09-24T08:30:05Z</time>
      </trkpt>
      <trkpt lat="42.28327" lon="0.05174">
        <ele>897.5</ele>
        <time>2015-09-24T08:30:06Z</time>
      </trkpt>
      <trkpt lat="42.28322" lon="0.05175">
        <ele>897.4</ele>
        <time>2015-09-24T08:30:07Z</time>
      </trkpt>
      <trkpt lat="42.28317" lon="0.05176">
        <ele>897.5</ele>
        <time>2015-09-24T08:30:08Z</time>
      </trkpt>
      <trkpt lat="42.28311" lon="0.05177">
        <ele>897.3</ele>
        <time>2015-09-24T08:30:09Z</time>
      </trkpt>
      <trkpt lat="42.28306" lon="0.05177">
        <ele>897.1</ele>
        <time>2015-09-24T08:30:10Z</time>
      </trkpt>
      <trkpt lat="42.283" lon="0.05177">
        <ele>896.6</ele>
        <time>2015-09-24T08:30:11Z</time>
      </trkpt>
      <trkpt lat="42.28295" lon="0.05177">
        <ele>896</ele>
        <time>2015-09-24T08:30:12Z</time>
      </trkpt>
      <trkpt lat="42.28289" lon="0.05177">
        <ele>895.9</ele>
        <time>2015-09-24T08:30:13Z</time>
      </trkpt>
      <trkpt lat="42.28283" lon="0.05178">
        <ele>896.3</ele>
        <time>2015-09-24T08:30:14Z</time>
      </trkpt>
      <trkpt lat="42.28277" lon="0.05178">
        <ele>896.6</ele>
        <time>2015-09-24T08:30:15Z</time>
      </trkpt>
      <trkpt lat="42.28271" lon="0.0518">
        <ele>897.2</ele>
        <time>2015-09-24T08:30:16Z</time>
      </trkpt>
      <trkpt lat="42.28264" lon="0.05182">
        <ele>897.9</ele>
        <time>2015-09-24T08:30:17Z</time>
      </trkpt>
      <trkpt lat="42.28258" lon="0.05183">
        <ele>898.6</ele>
        <time>2015-09-24T08:30:18Z</time>
      </trkpt>
      <trkpt lat="42.28252" lon="0.05185">
        <ele>899.3</ele>
        <time>2015-09-24T08:30:19Z</time>
      </trkpt>
      <trkpt lat="42.28246" lon="0.05186">
        <ele>899.6</ele>
        <time>2015-09-24T08:30:20Z</time>
      </trkpt>
      <trkpt lat="42.28239" lon="0.05186">
        <ele>899.6</ele>
        <time>2015-09-24T08:30:21Z</time>
      </trkpt>
      <trkpt lat="42.28234" lon="0.05184">
        <ele>899.1</ele>
        <time>2015-09-24T08:30:22Z</time>
      </trkpt>
      <trkpt lat="42.28228" lon="0.05182">
        <ele>898.4</ele>
        <time>2015-09-24T08:30:23Z</time>
      </trkpt>
      <trkpt lat="42.28222" lon="0.0518">
        <ele>897.7</ele>
        <time>2015-09-24T08:30:24Z</time>
      </trkpt>
      <trkpt lat="42.28215" lon="0.05178">
        <ele>897.2</ele>
        <time>2015-09-24T08:30:25Z</time>
      </trkpt>
      <trkpt lat="42.28209" lon="0.05177">
        <ele>896.9</ele>
        <time>2015-09-24T08:30:26Z</time>
      </trkpt>
      <trkpt lat="42.28203" lon="0.05176">
        <ele>896.7</ele>
        <time>2015-09-24T08:30:27Z</time>
      </trkpt>
      <trkpt lat="42.28197" lon="0.05176">
        <ele>896.6</ele>
        <time>2015-09-24T08:30:28Z</time>
      </trkpt>
      <trkpt lat="42.28192" lon="0.05176">
        <ele>896.6</ele>
        <time>2015-09-24T08:30:29Z</time>
      </trkpt>
      <trkpt lat="42.28186" lon="0.05175">
        <ele>896.6</ele>
        <time>2015-09-24T08:30:30Z</time>
      </trkpt>
      <trkpt lat="42.2818" lon="0.05176">
        <ele>896.8</ele>
        <time>2015-09-24T08:30:31Z</time>
      </trkpt>
      <trkpt lat="42.28175" lon="0.05176">
        <ele>896.9</ele>
        <time>2015-09-24T08:30:32Z</time>
      </trkpt>
      <trkpt lat="42.2817" lon="0.05177">
        <ele>897.1</ele>
        <time>2015-09-24T08:30:33Z</time>
      </trkpt>
      <trkpt lat="42.28166" lon="0.05178">
        <ele>897.4</ele>
        <time>2015-09-24T08:30:34Z</time>
      </trkpt>
      <trkpt lat="42.28161" lon="0.05179">
        <ele>897.8</ele>
        <time>2015-09-24T08:30:35Z</time>
      </trkpt>
      <trkpt lat="42.28158" lon="0.05181">
        <ele>898.4</ele>
        <time>2015-09-24T08:30:36Z</time>
      </trkpt>
      <trkpt lat="42.28154" lon="0.05184">
        <ele>899</ele>
        <time>2015-09-24T08:30:37Z</time>
      </trkpt>
      <trkpt lat="42.28152" lon="0.0519">
        <ele>900.4</ele>
        <time>2015-09-24T08:30:39Z</time>
      </trkpt>
      <trkpt lat="42.28151" lon="0.05195">
        <ele>901.6</ele>
        <time>2015-09-24T08:30:41Z</time>
      </trkpt>
      <trkpt lat="42.28155" lon="0.052">
        <ele>903</ele>
        <time>2015-09-24T08:30:43Z</time>
      </trkpt>
      <trkpt lat="42.28157" lon="0.05202">
        <ele>903.5</ele>
        <time>2015-09-24T08:30:44Z</time>
      </trkpt>
      <trkpt lat="42.2816" lon="0.05205">
        <ele>904.3</ele>
        <time>2015-09-24T08:30:45Z</time>
      </trkpt>
      <trkpt lat="42.28162" lon="0.05207">
        <ele>905.1</ele>
        <time>2015-09-24T08:30:46Z</time>
      </trkpt>
      <trkpt lat="42.28165" lon="0.05211">
        <ele>905.5</ele>
        <time>2015-09-24T08:30:47Z</time>
      </trkpt>
      <trkpt lat="42.28168" lon="0.05214">
        <ele>905.7</ele>
        <time>2015-09-24T08:30:48Z</time>
      </trkpt>
      <trkpt lat="42.2817" lon="0.05217">
        <ele>905.9</ele>
        <time>2015-09-24T08:30:49Z</time>
      </trkpt>
      <trkpt lat="42.28172" lon="0.05221">
        <ele>906.1</ele>
        <time>2015-09-24T08:30:50Z</time>
      </trkpt>
      <trkpt lat="42.28174" lon="0.05225">
        <ele>906.3</ele>
        <time>2015-09-24T08:30:51Z</time>
      </trkpt>
      <trkpt lat="42.28177" lon="0.05229">
        <ele>906.5</ele>
        <time>2015-09-24T08:30:52Z</time>
      </trkpt>
      <trkpt lat="42.2818" lon="0.05231">
        <ele>906.7</ele>
        <time>2015-09-24T08:30:53Z</time>
      </trkpt>
      <trkpt lat="42.28182" lon="0.05231">
        <ele>906.8</ele>
        <time>2015-09-24T08:30:54Z</time>
      </trkpt>
      <trkpt lat="42.28186" lon="0.05231">
        <ele>906.9</ele>
        <time>2015-09-24T08:30:55Z</time>
      </trkpt>
      <trkpt lat="42.28189" lon="0.0523">
        <ele>906.9</ele>
        <time>2015-09-24T08:30:56Z</time>
      </trkpt>
      <trkpt lat="42.28192" lon="0.05228">
        <ele>907</ele>
        <time>2015-09-24T08:30:57Z</time>
      </trkpt>
      <trkpt lat="42.28194" lon="0.05225">
        <ele>907</ele>
        <time>2015-09-24T08:30:58Z</time>
      </trkpt>
      <trkpt lat="42.28197" lon="0.05222">
        <ele>907</ele>
        <time>2015-09-24T08:30:59Z</time>
      </trkpt>
      <trkpt lat="42.282" lon="0.05219">
        <ele>907</ele>
        <time>2015-09-24T08:31:00Z</time>
      </trkpt>
      <trkpt lat="42.28202" lon="0.05216">
        <ele>907</ele>
        <time>2015-09-24T08:31:01Z</time>
      </trkpt>
      <trkpt lat="42.28205" lon="0.05213">
        <ele>907</ele>
        <time>2015-09-24T08:31:02Z</time>
      </trkpt>
      <trkpt lat="42.28208" lon="0.0521">
        <ele>907</ele>
        <time>2015-09-24T08:31:03Z</time>
      </trkpt>
      <trkpt lat="42.28211" lon="0.05209">
        <ele>907</ele>
        <time>2015-09-24T08:31:04Z</time>
      </trkpt>
      <trkpt lat="42.28214" lon="0.05208">
        <ele>907.1</ele>
        <time>2015-09-24T08:31:05Z</time>
      </trkpt>
      <trkpt lat="42.28217" lon="0.0521">
        <ele>907.1</ele>
        <time>2015-09-24T08:31:06Z</time>
      </trkpt>
      <trkpt lat="42.2822" lon="0.05212">
        <ele>907.3</ele>
        <time>2015-09-24T08:31:07Z</time>
      </trkpt>
      <trkpt lat="42.28224" lon="0.05215">
        <ele>907.4</ele>
        <time>2015-09-24T08:31:08Z</time>
      </trkpt>
      <trkpt lat="42.28228" lon="0.05218">
        <ele>907.5</ele>
        <time>2015-09-24T08:31:09Z</time>
      </trkpt>
      <trkpt lat="42.28231" lon="0.05221">
        <ele>907.6</ele>
        <time>2015-09-24T08:31:10Z</time>
      </trkpt>
      <trkpt lat="42.28235" lon="0.05224">
        <ele>907.8</ele>
        <time>2015-09-24T08:31:11Z</time>
      </trkpt>
      <trkpt lat="42.28238" lon="0.05227">
        <ele>908</ele>
        <time>2015-09-24T08:31:12Z</time>
      </trkpt>
      <trkpt lat="42.28241" lon="0.0523">
        <ele>908.1</ele>
        <time>2015-09-24T08:31:13Z</time>
      </trkpt>
      <trkpt lat="42.28245" lon="0.05233">
        <ele>908.3</ele>
        <time>2015-09-24T08:31:14Z</time>
      </trkpt>
      <trkpt lat="42.28249" lon="0.05235">
        <ele>908.4</ele>
        <time>2015-09-24T08:31:15Z</time>
      </trkpt>
      <trkpt lat="42.28253" lon="0.05238">
        <ele>908.6</ele>
        <time>2015-09-24T08:31:16Z</time>
      </trkpt>
      <trkpt lat="42.28257" lon="0.05241">
        <ele>908.8</ele>
        <time>2015-09-24T08:31:17Z</time>
      </trkpt>
      <trkpt lat="42.2826" lon="0.05243">
        <ele>909</ele>
        <time>2015-09-24T08:31:18Z</time>
      </trkpt>
      <trkpt lat="42.28264" lon="0.05246">
        <ele>909.2</ele>
        <time>2015-09-24T08:31:19Z</time>
      </trkpt>
      <trkpt lat="42.28268" lon="0.05249">
        <ele>909.4</ele>
        <time>2015-09-24T08:31:20Z</time>
      </trkpt>
      <trkpt lat="42.28272" lon="0.05252">
        <ele>909.6</ele>
        <time>2015-09-24T08:31:21Z</time>
      </trkpt>
      <trkpt lat="42.28275" lon="0.05255">
        <ele>909.8</ele>
        <time>2015-09-24T08:31:22Z</time>
      </trkpt>
      <trkpt lat="42.2828" lon="0.05259">
        <ele>910.1</ele>
        <time>2015-09-24T08:31:23Z</time>
      </trkpt>
      <trkpt lat="42.28284" lon="0.05261">
        <ele>910.3</ele>
        <time>2015-09-24T08:31:24Z</time>
      </trkpt>
      <trkpt lat="42.28288" lon="0.05264">
        <ele>910.6</ele>
        <time>2015-09-24T08:31:25Z</time>
      </trkpt>
      <trkpt lat="42.28292" lon="0.05267">
        <ele>910.9</ele>
        <time>2015-09-24T08:31:26Z</time>
      </trkpt>
      <trkpt lat="42.28296" lon="0.05271">
        <ele>911.2</ele>
        <time>2015-09-24T08:31:27Z</time>
      </trkpt>
      <trkpt lat="42.283" lon="0.05275">
        <ele>911.6</ele>
        <time>2015-09-24T08:31:28Z</time>
      </trkpt>
      <trkpt lat="42.28304" lon="0.05279">
        <ele>912</ele>
        <time>2015-09-24T08:31:29Z</time>
      </trkpt>
      <trkpt lat="42.28308" lon="0.05284">
        <ele>912.4</ele>
        <time>2015-09-24T08:31:30Z</time>
      </trkpt>
      <trkpt lat="42.28311" lon="0.05288">
        <ele>912.8</ele>
        <time>2015-09-24T08:31:31Z</time>
      </trkpt>
      <trkpt lat="42.28316" lon="0.05292">
        <ele>913.1</ele>
        <time>2015-09-24T08:31:32Z</time>
      </trkpt>
      <trkpt lat="42.28321" lon="0.05296">
        <ele>913.1</ele>
        <time>2015-09-24T08:31:33Z</time>
      </trkpt>
      <trkpt lat="42.28326" lon="0.05299">
        <ele>913.1</ele>
        <time>2015-09-24T08:31:34Z</time>
      </trkpt>
      <trkpt lat="42.2833" lon="0.05302">
        <ele>913.1</ele>
        <time>2015-09-24T08:31:35Z</time>
      </trkpt>
      <trkpt lat="42.28335" lon="0.05304">
        <ele>913.2</ele>
        <time>2015-09-24T08:31:36Z</time>
      </trkpt>
      <trkpt lat="42.28339" lon="0.05306">
        <ele>913.3</ele>
        <time>2015-09-24T08:31:37Z</time>
      </trkpt>
      <trkpt lat="42.28343" lon="0.05308">
        <ele>913.3</ele>
        <time>2015-09-24T08:31:38Z</time>
      </trkpt>
      <trkpt lat="42.28348" lon="0.05311">
        <ele>913.3</ele>
        <time>2015-09-24T08:31:39Z</time>
      </trkpt>
      <trkpt lat="42.28352" lon="0.05313">
        <ele>913.3</ele>
        <time>2015-09-24T08:31:40Z</time>
      </trkpt>
      <trkpt lat="42.28356" lon="0.05318">
        <ele>913.2</ele>
        <time>2015-09-24T08:31:41Z</time>
      </trkpt>
      <trkpt lat="42.28361" lon="0.05321">
        <ele>913.2</ele>
        <time>2015-09-24T08:31:42Z</time>
      </trkpt>
      <trkpt lat="42.28366" lon="0.05324">
        <ele>913.2</ele>
        <time>2015-09-24T08:31:43Z</time>
      </trkpt>
      <trkpt lat="42.2837" lon="0.05327">
        <ele>913.2</ele>
        <time>2015-09-24T08:31:44Z</time>
      </trkpt>
      <trkpt lat="42.28375" lon="0.05328">
        <ele>913.4</ele>
        <time>2015-09-24T08:31:45Z</time>
      </trkpt>
      <trkpt lat="42.2838" lon="0.05332">
        <ele>913.3</ele>
        <time>2015-09-24T08:31:46Z</time>
      </trkpt>
      <trkpt lat="42.28384" lon="0.05335">
        <ele>913.2</ele>
        <time>2015-09-24T08:31:47Z</time>
      </trkpt>
      <trkpt lat="42.28388" lon="0.05339">
        <ele>913</ele>
        <time>2015-09-24T08:31:48Z</time>
      </trkpt>
      <trkpt lat="42.28392" lon="0.05345">
        <ele>912.8</ele>
        <time>2015-09-24T08:31:49Z</time>
      </trkpt>
      <trkpt lat="42.28395" lon="0.05349">
        <ele>912.6</ele>
        <time>2015-09-24T08:31:50Z</time>
      </trkpt>
      <trkpt lat="42.284" lon="0.05354">
        <ele>912.4</ele>
        <time>2015-09-24T08:31:51Z</time>
      </trkpt>
      <trkpt lat="42.28404" lon="0.05358">
        <ele>912.3</ele>
        <time>2015-09-24T08:31:52Z</time>
      </trkpt>
      <trkpt lat="42.28409" lon="0.05361">
        <ele>912.2</ele>
        <time>2015-09-24T08:31:53Z</time>
      </trkpt>
      <trkpt lat="42.28413" lon="0.05364">
        <ele>912.2</ele>
        <time>2015-09-24T08:31:54Z</time>
      </trkpt>
      <trkpt lat="42.28417" lon="0.05367">
        <ele>912.1</ele>
        <time>2015-09-24T08:31:55Z</time>
      </trkpt>
      <trkpt lat="42.28422" lon="0.05371">
        <ele>912</ele>
        <time>2015-09-24T08:31:56Z</time>
      </trkpt>
      <trkpt lat="42.28426" lon="0.05375">
        <ele>911.9</ele>
        <time>2015-09-24T08:31:57Z</time>
      </trkpt>
      <trkpt lat="42.2843" lon="0.05378">
        <ele>911.7</ele>
        <time>2015-09-24T08:31:58Z</time>
      </trkpt>
      <trkpt lat="42.28433" lon="0.05382">
        <ele>911.5</ele>
        <time>2015-09-24T08:31:59Z</time>
      </trkpt>
      <trkpt lat="42.28436" lon="0.05387">
        <ele>911.3</ele>
        <time>2015-09-24T08:32:00Z</time>
      </trkpt>
      <trkpt lat="42.28439" lon="0.05391">
        <ele>911</ele>
        <time>2015-09-24T08:32:01Z</time>
      </trkpt>
      <trkpt lat="42.28442" lon="0.05394">
        <ele>910.9</ele>
        <time>2015-09-24T08:32:02Z</time>
      </trkpt>
      <trkpt lat="42.28445" lon="0.05397">
        <ele>910.7</ele>
        <time>2015-09-24T08:32:03Z</time>
      </trkpt>
      <trkpt lat="42.28448" lon="0.054">
        <ele>910.6</ele>
        <time>2015-09-24T08:32:04Z</time>
      </trkpt>
      <trkpt lat="42.28451" lon="0.05403">
        <ele>910.4</ele>
        <time>2015-09-24T08:32:05Z</time>
      </trkpt>
      <trkpt lat="42.28454" lon="0.05407">
        <ele>910.2</ele>
        <time>2015-09-24T08:32:06Z</time>
      </trkpt>
      <trkpt lat="42.28457" lon="0.05411">
        <ele>909.9</ele>
        <time>2015-09-24T08:32:07Z</time>
      </trkpt>
      <trkpt lat="42.2846" lon="0.05415">
        <ele>909.7</ele>
        <time>2015-09-24T08:32:08Z</time>
      </trkpt>
      <trkpt lat="42.28464" lon="0.05418">
        <ele>909.6</ele>
        <time>2015-09-24T08:32:09Z</time>
      </trkpt>
      <trkpt lat="42.28467" lon="0.05422">
        <ele>909.4</ele>
        <time>2015-09-24T08:32:10Z</time>
      </trkpt>
      <trkpt lat="42.28471" lon="0.05426">
        <ele>909.2</ele>
        <time>2015-09-24T08:32:11Z</time>
      </trkpt>
      <trkpt lat="42.28474" lon="0.05429">
        <ele>909</ele>
        <time>2015-09-24T08:32:12Z</time>
      </trkpt>
      <trkpt lat="42.28478" lon="0.05432">
        <ele>908.8</ele>
        <time>2015-09-24T08:32:13Z</time>
      </trkpt>
      <trkpt lat="42.28481" lon="0.05435">
        <ele>908.7</ele>
        <time>2015-09-24T08:32:14Z</time>
      </trkpt>
      <trkpt lat="42.28485" lon="0.05437">
        <ele>908.6</ele>
        <time>2015-09-24T08:32:15Z</time>
      </trkpt>
      <trkpt lat="42.28489" lon="0.0544">
        <ele>908.5</ele>
        <time>2015-09-24T08:32:16Z</time>
      </trkpt>
      <trkpt lat="42.28493" lon="0.05441">
        <ele>908.4</ele>
        <time>2015-09-24T08:32:17Z</time>
      </trkpt>
      <trkpt lat="42.28497" lon="0.05443">
        <ele>908.4</ele>
        <time>2015-09-24T08:32:18Z</time>
      </trkpt>
      <trkpt lat="42.28502" lon="0.05446">
        <ele>908.3</ele>
        <time>2015-09-24T08:32:19Z</time>
      </trkpt>
      <trkpt lat="42.28505" lon="0.05446">
        <ele>908.4</ele>
        <time>2015-09-24T08:32:20Z</time>
      </trkpt>
      <trkpt lat="42.28508" lon="0.05446">
        <ele>908.4</ele>
        <time>2015-09-24T08:32:21Z</time>
      </trkpt>
      <trkpt lat="42.28511" lon="0.05447">
        <ele>908.4</ele>
        <time>2015-09-24T08:32:22Z</time>
      </trkpt>
      <trkpt lat="42.28514" lon="0.05448">
        <ele>908.3</ele>
        <time>2015-09-24T08:32:23Z</time>
      </trkpt>
      <trkpt lat="42.28517" lon="0.0545">
        <ele>908.2</ele>
        <time>2015-09-24T08:32:24Z</time>
      </trkpt>
      <trkpt lat="42.28519" lon="0.05452">
        <ele>908.1</ele>
        <time>2015-09-24T08:32:25Z</time>
      </trkpt>
      <trkpt lat="42.28522" lon="0.05454">
        <ele>908</ele>
        <time>2015-09-24T08:32:26Z</time>
      </trkpt>
      <trkpt lat="42.28525" lon="0.05456">
        <ele>907.8</ele>
        <time>2015-09-24T08:32:27Z</time>
      </trkpt>
      <trkpt lat="42.28527" lon="0.05458">
        <ele>907.7</ele>
        <time>2015-09-24T08:32:28Z</time>
      </trkpt>
      <trkpt lat="42.2853" lon="0.0546">
        <ele>907.6</ele>
        <time>2015-09-24T08:32:29Z</time>
      </trkpt>
      <trkpt lat="42.28532" lon="0.05462">
        <ele>907.5</ele>
        <time>2015-09-24T08:32:30Z</time>
      </trkpt>
      <trkpt lat="42.28535" lon="0.05464">
        <ele>907.3</ele>
        <time>2015-09-24T08:32:31Z</time>
      </trkpt>
      <trkpt lat="42.28537" lon="0.05466">
        <ele>907.2</ele>
        <time>2015-09-24T08:32:32Z</time>
      </trkpt>
      <trkpt lat="42.2854" lon="0.05469">
        <ele>907.1</ele>
        <time>2015-09-24T08:32:33Z</time>
      </trkpt>
      <trkpt lat="42.28543" lon="0.05472">
        <ele>907</ele>
        <time>2015-09-24T08:32:34Z</time>
      </trkpt>
      <trkpt lat="42.28546" lon="0.05476">
        <ele>906.8</ele>
        <time>2015-09-24T08:32:35Z</time>
      </trkpt>
      <trkpt lat="42.28549" lon="0.05481">
        <ele>906.6</ele>
        <time>2015-09-24T08:32:36Z</time>
      </trkpt>
      <trkpt lat="42.28552" lon="0.05489">
        <ele>906.1</ele>
        <time>2015-09-24T08:32:37Z</time>
      </trkpt>
      <trkpt lat="42.28555" lon="0.05495">
        <ele>905.8</ele>
        <time>2015-09-24T08:32:38Z</time>
      </trkpt>
      <trkpt lat="42.28559" lon="0.05499">
        <ele>905.7</ele>
        <time>2015-09-24T08:32:39Z</time>
      </trkpt>
      <trkpt lat="42.28562" lon="0.05502">
        <ele>905.6</ele>
        <time>2015-09-24T08:32:40Z</time>
      </trkpt>
      <trkpt lat="42.28564" lon="0.05505">
        <ele>905.6</ele>
        <time>2015-09-24T08:32:41Z</time>
      </trkpt>
      <trkpt lat="42.28567" lon="0.05508">
        <ele>905.6</ele>
        <time>2015-09-24T08:32:42Z</time>
      </trkpt>
      <trkpt lat="42.28569" lon="0.0551">
        <ele>905.5</ele>
        <time>2015-09-24T08:32:43Z</time>
      </trkpt>
      <trkpt lat="42.28571" lon="0.05513">
        <ele>905.4</ele>
        <time>2015-09-24T08:32:44Z</time>
      </trkpt>
      <trkpt lat="42.28574" lon="0.05517">
        <ele>905.3</ele>
        <time>2015-09-24T08:32:46Z</time>
      </trkpt>
      <trkpt lat="42.28578" lon="0.0552">
        <ele>905.3</ele>
        <time>2015-09-24T08:32:48Z</time>
      </trkpt>
      <trkpt lat="42.28581" lon="0.05524">
        <ele>905.2</ele>
        <time>2015-09-24T08:32:50Z</time>
      </trkpt>
      <trkpt lat="42.28584" lon="0.05529">
        <ele>905.1</ele>
        <time>2015-09-24T08:32:52Z</time>
      </trkpt>
      <trkpt lat="42.28587" lon="0.05532">
        <ele>905</ele>
        <time>2015-09-24T08:32:53Z</time>
      </trkpt>
      <trkpt lat="42.28589" lon="0.05534">
        <ele>905</ele>
        <time>2015-09-24T08:32:54Z</time>
      </trkpt>
      <trkpt lat="42.28591" lon="0.05536">
        <ele>905</ele>
        <time>2015-09-24T08:32:55Z</time>
      </trkpt>
      <trkpt lat="42.28595" lon="0.0554">
        <ele>904.9</ele>
        <time>2015-09-24T08:32:57Z</time>
      </trkpt>
      <trkpt lat="42.28597" lon="0.05544">
        <ele>904.8</ele>
        <time>2015-09-24T08:32:59Z</time>
      </trkpt>
      <trkpt lat="42.28601" lon="0.05547">
        <ele>904.9</ele>
        <time>2015-09-24T08:33:01Z</time>
      </trkpt>
      <trkpt lat="42.28604" lon="0.05551">
        <ele>904.9</ele>
        <time>2015-09-24T08:33:03Z</time>
      </trkpt>
      <trkpt lat="42.28608" lon="0.05555">
        <ele>904.8</ele>
        <time>2015-09-24T08:33:05Z</time>
      </trkpt>
      <trkpt lat="42.28612" lon="0.0556">
        <ele>904.7</ele>
        <time>2015-09-24T08:33:07Z</time>
      </trkpt>
      <trkpt lat="42.28614" lon="0.05563">
        <ele>904.7</ele>
        <time>2015-09-24T08:33:08Z</time>
      </trkpt>
      <trkpt lat="42.28617" lon="0.05566">
        <ele>904.7</ele>
        <time>2015-09-24T08:33:09Z</time>
      </trkpt>
      <trkpt lat="42.28619" lon="0.05568">
        <ele>904.7</ele>
        <time>2015-09-24T08:33:10Z</time>
      </trkpt>
      <trkpt lat="42.28622" lon="0.05571">
        <ele>904.7</ele>
        <time>2015-09-24T08:33:11Z</time>
      </trkpt>
      <trkpt lat="42.28624" lon="0.05573">
        <ele>904.7</ele>
        <time>2015-09-24T08:33:12Z</time>
      </trkpt>
      <trkpt lat="42.28627" lon="0.05575">
        <ele>904.8</ele>
        <time>2015-09-24T08:33:13Z</time>
      </trkpt>
      <trkpt lat="42.2863" lon="0.05576">
        <ele>904.9</ele>
        <time>2015-09-24T08:33:14Z</time>
      </trkpt>
      <trkpt lat="42.28633" lon="0.05578">
        <ele>905</ele>
        <time>2015-09-24T08:33:15Z</time>
      </trkpt>
      <trkpt lat="42.28635" lon="0.0558">
        <ele>905.1</ele>
        <time>2015-09-24T08:33:16Z</time>
      </trkpt>
      <trkpt lat="42.28638" lon="0.05581">
        <ele>905.2</ele>
        <time>2015-09-24T08:33:17Z</time>
      </trkpt>
      <trkpt lat="42.28641" lon="0.05583">
        <ele>905.3</ele>
        <time>2015-09-24T08:33:18Z</time>
      </trkpt>
      <trkpt lat="42.28643" lon="0.05584">
        <ele>905.3</ele>
        <time>2015-09-24T08:33:19Z</time>
      </trkpt>
      <trkpt lat="42.28646" lon="0.05586">
        <ele>905.4</ele>
        <time>2015-09-24T08:33:20Z</time>
      </trkpt>
      <trkpt lat="42.28648" lon="0.05588">
        <ele>905.5</ele>
        <time>2015-09-24T08:33:21Z</time>
      </trkpt>
      <trkpt lat="42.28651" lon="0.0559">
        <ele>905.5</ele>
        <time>2015-09-24T08:33:22Z</time>
      </trkpt>
      <trkpt lat="42.28653" lon="0.05592">
        <ele>905.6</ele>
        <time>2015-09-24T08:33:23Z</time>
      </trkpt>
      <trkpt lat="42.28655" lon="0.05595">
        <ele>905.6</ele>
        <time>2015-09-24T08:33:24Z</time>
      </trkpt>
      <trkpt lat="42.28658" lon="0.05599">
        <ele>905.6</ele>
        <time>2015-09-24T08:33:25Z</time>
      </trkpt>
      <trkpt lat="42.28661" lon="0.05602">
        <ele>905.6</ele>
        <time>2015-09-24T08:33:26Z</time>
      </trkpt>
      <trkpt lat="42.28665" lon="0.05606">
        <ele>905.6</ele>
        <time>2015-09-24T08:33:27Z</time>
      </trkpt>
      <trkpt lat="42.28668" lon="0.0561">
        <ele>905.6</ele>
        <time>2015-09-24T08:33:28Z</time>
      </trkpt>
      <trkpt lat="42.28671" lon="0.05615">
        <ele>905.6</ele>
        <time>2015-09-24T08:33:29Z</time>
      </trkpt>
      <trkpt lat="42.28675" lon="0.0562">
        <ele>905.6</ele>
        <time>2015-09-24T08:33:30Z</time>
      </trkpt>
      <trkpt lat="42.28679" lon="0.05624">
        <ele>905.6</ele>
        <time>2015-09-24T08:33:31Z</time>
      </trkpt>
      <trkpt lat="42.28682" lon="0.05628">
        <ele>905.6</ele>
        <time>2015-09-24T08:33:32Z</time>
      </trkpt>
      <trkpt lat="42.28686" lon="0.05632">
        <ele>905.7</ele>
        <time>2015-09-24T08:33:33Z</time>
      </trkpt>
      <trkpt lat="42.28689" lon="0.05635">
        <ele>905.8</ele>
        <time>2015-09-24T08:33:34Z</time>
      </trkpt>
      <trkpt lat="42.28692" lon="0.05638">
        <ele>905.9</ele>
        <time>2015-09-24T08:33:35Z</time>
      </trkpt>
      <trkpt lat="42.28696" lon="0.05642">
        <ele>905.9</ele>
        <time>2015-09-24T08:33:36Z</time>
      </trkpt>
      <trkpt lat="42.28699" lon="0.05645">
        <ele>906</ele>
        <time>2015-09-24T08:33:37Z</time>
      </trkpt>
      <trkpt lat="42.28702" lon="0.05648">
        <ele>906.1</ele>
        <time>2015-09-24T08:33:38Z</time>
      </trkpt>
      <trkpt lat="42.28705" lon="0.05651">
        <ele>906.1</ele>
        <time>2015-09-24T08:33:39Z</time>
      </trkpt>
      <trkpt lat="42.28708" lon="0.05655">
        <ele>906.2</ele>
        <time>2015-09-24T08:33:40Z</time>
      </trkpt>
      <trkpt lat="42.28711" lon="0.05658">
        <ele>906.2</ele>
        <time>2015-09-24T08:33:41Z</time>
      </trkpt>
      <trkpt lat="42.28714" lon="0.05661">
        <ele>906.3</ele>
        <time>2015-09-24T08:33:42Z</time>
      </trkpt>
      <trkpt lat="42.28717" lon="0.05665">
        <ele>906.2</ele>
        <time>2015-09-24T08:33:43Z</time>
      </trkpt>
      <trkpt lat="42.2872" lon="0.05669">
        <ele>906.2</ele>
        <time>2015-09-24T08:33:44Z</time>
      </trkpt>
      <trkpt lat="42.28723" lon="0.05672">
        <ele>906.2</ele>
        <time>2015-09-24T08:33:45Z</time>
      </trkpt>
      <trkpt lat="42.28726" lon="0.05675">
        <ele>906.3</ele>
        <time>2015-09-24T08:33:46Z</time>
      </trkpt>
      <trkpt lat="42.28728" lon="0.05678">
        <ele>906.3</ele>
        <time>2015-09-24T08:33:47Z</time>
      </trkpt>
      <trkpt lat="42.2873" lon="0.05681">
        <ele>906.3</ele>
        <time>2015-09-24T08:33:48Z</time>
      </trkpt>
      <trkpt lat="42.28732" lon="0.05683">
        <ele>906.3</ele>
        <time>2015-09-24T08:33:49Z</time>
      </trkpt>
      <trkpt lat="42.28734" lon="0.05686">
        <ele>906.4</ele>
        <time>2015-09-24T08:33:50Z</time>
      </trkpt>
      <trkpt lat="42.28737" lon="0.05688">
        <ele>906.4</ele>
        <time>2015-09-24T08:33:51Z</time>
      </trkpt>
      <trkpt lat="42.28739" lon="0.0569">
        <ele>906.5</ele>
        <time>2015-09-24T08:33:52Z</time>
      </trkpt>
      <trkpt lat="42.28744" lon="0.05693">
        <ele>906.7</ele>
        <time>2015-09-24T08:33:54Z</time>
      </trkpt>
      <trkpt lat="42.28746" lon="0.05695">
        <ele>906.8</ele>
        <time>2015-09-24T08:33:55Z</time>
      </trkpt>
      <trkpt lat="42.28748" lon="0.05698">
        <ele>906.9</ele>
        <time>2015-09-24T08:33:56Z</time>
      </trkpt>
      <trkpt lat="42.2875" lon="0.057">
        <ele>906.9</ele>
        <time>2015-09-24T08:33:57Z</time>
      </trkpt>
      <trkpt lat="42.28754" lon="0.05705">
        <ele>907</ele>
        <time>2015-09-24T08:33:59Z</time>
      </trkpt>
      <trkpt lat="42.28756" lon="0.05708">
        <ele>907.1</ele>
        <time>2015-09-24T08:34:00Z</time>
      </trkpt>
      <trkpt lat="42.28758" lon="0.05711">
        <ele>907.2</ele>
        <time>2015-09-24T08:34:01Z</time>
      </trkpt>
      <trkpt lat="42.28762" lon="0.05716">
        <ele>907.5</ele>
        <time>2015-09-24T08:34:03Z</time>
      </trkpt>
      <trkpt lat="42.28764" lon="0.05719">
        <ele>907.7</ele>
        <time>2015-09-24T08:34:04Z</time>
      </trkpt>
      <trkpt lat="42.28766" lon="0.05721">
        <ele>907.9</ele>
        <time>2015-09-24T08:34:05Z</time>
      </trkpt>
      <trkpt lat="42.28768" lon="0.05723">
        <ele>908.1</ele>
        <time>2015-09-24T08:34:06Z</time>
      </trkpt>
      <trkpt lat="42.28771" lon="0.05726">
        <ele>908.3</ele>
        <time>2015-09-24T08:34:07Z</time>
      </trkpt>
      <trkpt lat="42.28773" lon="0.05728">
        <ele>908.5</ele>
        <time>2015-09-24T08:34:08Z</time>
      </trkpt>
      <trkpt lat="42.28776" lon="0.05731">
        <ele>908.7</ele>
        <time>2015-09-24T08:34:10Z</time>
      </trkpt>
      <trkpt lat="42.28775" lon="0.05735">
        <ele>908.6</ele>
        <time>2015-09-24T08:34:14Z</time>
      </trkpt>
      <trkpt lat="42.28772" lon="0.05738">
        <ele>908.5</ele>
        <time>2015-09-24T08:34:16Z</time>
      </trkpt>
      <trkpt lat="42.28771" lon="0.05741">
        <ele>908.3</ele>
        <time>2015-09-24T08:34:17Z</time>
      </trkpt>
      <trkpt lat="42.28769" lon="0.05744">
        <ele>908.2</ele>
        <time>2015-09-24T08:34:18Z</time>
      </trkpt>
      <trkpt lat="42.28767" lon="0.05747">
        <ele>908</ele>
        <time>2015-09-24T08:34:19Z</time>
      </trkpt>
      <trkpt lat="42.28763" lon="0.05752">
        <ele>907.8</ele>
        <time>2015-09-24T08:34:21Z</time>
      </trkpt>
      <trkpt lat="42.2876" lon="0.05757">
        <ele>907.6</ele>
        <time>2015-09-24T08:34:23Z</time>
      </trkpt>
      <trkpt lat="42.28756" lon="0.05761">
        <ele>907.3</ele>
        <time>2015-09-24T08:34:25Z</time>
      </trkpt>
      <trkpt lat="42.28751" lon="0.05763">
        <ele>906.9</ele>
        <time>2015-09-24T08:34:27Z</time>
      </trkpt>
      <trkpt lat="42.28744" lon="0.05764">
        <ele>906.4</ele>
        <time>2015-09-24T08:34:29Z</time>
      </trkpt>
      <trkpt lat="42.28741" lon="0.05765">
        <ele>906.2</ele>
        <time>2015-09-24T08:34:30Z</time>
      </trkpt>
      <trkpt lat="42.28738" lon="0.05765">
        <ele>905.9</ele>
        <time>2015-09-24T08:34:31Z</time>
      </trkpt>
      <trkpt lat="42.28735" lon="0.05767">
        <ele>905.7</ele>
        <time>2015-09-24T08:34:32Z</time>
      </trkpt>
      <trkpt lat="42.28732" lon="0.05768">
        <ele>905.5</ele>
        <time>2015-09-24T08:34:33Z</time>
      </trkpt>
      <trkpt lat="42.28729" lon="0.05769">
        <ele>905.3</ele>
        <time>2015-09-24T08:34:34Z</time>
      </trkpt>
      <trkpt lat="42.28726" lon="0.0577">
        <ele>905.1</ele>
        <time>2015-09-24T08:34:35Z</time>
      </trkpt>
      <trkpt lat="42.28723" lon="0.05771">
        <ele>904.9</ele>
        <time>2015-09-24T08:34:36Z</time>
      </trkpt>
      <trkpt lat="42.2872" lon="0.05771">
        <ele>904.6</ele>
        <time>2015-09-24T08:34:37Z</time>
      </trkpt>
      <trkpt lat="42.28717" lon="0.05772">
        <ele>904.4</ele>
        <time>2015-09-24T08:34:38Z</time>
      </trkpt>
      <trkpt lat="42.28714" lon="0.05772">
        <ele>904.2</ele>
        <time>2015-09-24T08:34:39Z</time>
      </trkpt>
      <trkpt lat="42.2871" lon="0.05773">
        <ele>903.9</ele>
        <time>2015-09-24T08:34:40Z</time>
      </trkpt>
      <trkpt lat="42.28707" lon="0.05774">
        <ele>903.7</ele>
        <time>2015-09-24T08:34:41Z</time>
      </trkpt>
      <trkpt lat="42.28703" lon="0.05776">
        <ele>903.4</ele>
        <time>2015-09-24T08:34:42Z</time>
      </trkpt>
      <trkpt lat="42.287" lon="0.05778">
        <ele>903.2</ele>
        <time>2015-09-24T08:34:43Z</time>
      </trkpt>
      <trkpt lat="42.28696" lon="0.0578">
        <ele>903</ele>
        <time>2015-09-24T08:34:44Z</time>
      </trkpt>
      <trkpt lat="42.28693" lon="0.05782">
        <ele>902.8</ele>
        <time>2015-09-24T08:34:45Z</time>
      </trkpt>
      <trkpt lat="42.2869" lon="0.05784">
        <ele>902.6</ele>
        <time>2015-09-24T08:34:46Z</time>
      </trkpt>
      <trkpt lat="42.28687" lon="0.05786">
        <ele>902.3</ele>
        <time>2015-09-24T08:34:47Z</time>
      </trkpt>
      <trkpt lat="42.28683" lon="0.05788">
        <ele>902.1</ele>
        <time>2015-09-24T08:34:48Z</time>
      </trkpt>
      <trkpt lat="42.28679" lon="0.05789">
        <ele>901.9</ele>
        <time>2015-09-24T08:34:49Z</time>
      </trkpt>
      <trkpt lat="42.28676" lon="0.05789">
        <ele>901.6</ele>
        <time>2015-09-24T08:34:50Z</time>
      </trkpt>
      <trkpt lat="42.28672" lon="0.05789">
        <ele>901.3</ele>
        <time>2015-09-24T08:34:51Z</time>
      </trkpt>
      <trkpt lat="42.28668" lon="0.05789">
        <ele>901.1</ele>
        <time>2015-09-24T08:34:52Z</time>
      </trkpt>
      <trkpt lat="42.28665" lon="0.0579">
        <ele>900.8</ele>
        <time>2015-09-24T08:34:53Z</time>
      </trkpt>
      <trkpt lat="42.28662" lon="0.05793">
        <ele>900.7</ele>
        <time>2015-09-24T08:34:54Z</time>
      </trkpt>
      <trkpt lat="42.28659" lon="0.05797">
        <ele>900.6</ele>
        <time>2015-09-24T08:34:55Z</time>
      </trkpt>
      <trkpt lat="42.28657" lon="0.05801">
        <ele>900.6</ele>
        <time>2015-09-24T08:34:56Z</time>
      </trkpt>
      <trkpt lat="42.28655" lon="0.05805">
        <ele>900.5</ele>
        <time>2015-09-24T08:34:57Z</time>
      </trkpt>
      <trkpt lat="42.28653" lon="0.0581">
        <ele>900.5</ele>
        <time>2015-09-24T08:34:58Z</time>
      </trkpt>
      <trkpt lat="42.2865" lon="0.05814">
        <ele>900.3</ele>
        <time>2015-09-24T08:34:59Z</time>
      </trkpt>
      <trkpt lat="42.28647" lon="0.05818">
        <ele>900.2</ele>
        <time>2015-09-24T08:35:00Z</time>
      </trkpt>
      <trkpt lat="42.28644" lon="0.05822">
        <ele>900</ele>
        <time>2015-09-24T08:35:01Z</time>
      </trkpt>
      <trkpt lat="42.2864" lon="0.05827">
        <ele>899.7</ele>
        <time>2015-09-24T08:35:02Z</time>
      </trkpt>
      <trkpt lat="42.28637" lon="0.05832">
        <ele>899.5</ele>
        <time>2015-09-24T08:35:03Z</time>
      </trkpt>
      <trkpt lat="42.28635" lon="0.05837">
        <ele>899.4</ele>
        <time>2015-09-24T08:35:04Z</time>
      </trkpt>
      <trkpt lat="42.28633" lon="0.05841">
        <ele>899.3</ele>
        <time>2015-09-24T08:35:05Z</time>
      </trkpt>
      <trkpt lat="42.28631" lon="0.05844">
        <ele>899.2</ele>
        <time>2015-09-24T08:35:06Z</time>
      </trkpt>
      <trkpt lat="42.28628" lon="0.05846">
        <ele>899</ele>
        <time>2015-09-24T08:35:07Z</time>
      </trkpt>
      <trkpt lat="42.28625" lon="0.05846">
        <ele>898.7</ele>
        <time>2015-09-24T08:35:08Z</time>
      </trkpt>
      <trkpt lat="42.28622" lon="0.05846">
        <ele>898.4</ele>
        <time>2015-09-24T08:35:09Z</time>
      </trkpt>
      <trkpt lat="42.2862" lon="0.05848">
        <ele>898.2</ele>
        <time>2015-09-24T08:35:10Z</time>
      </trkpt>
      <trkpt lat="42.28617" lon="0.0585">
        <ele>898</ele>
        <time>2015-09-24T08:35:11Z</time>
      </trkpt>
      <trkpt lat="42.28612" lon="0.05853">
        <ele>897.7</ele>
        <time>2015-09-24T08:35:13Z</time>
      </trkpt>
      <trkpt lat="42.28608" lon="0.05854">
        <ele>897.4</ele>
        <time>2015-09-24T08:35:15Z</time>
      </trkpt>
      <trkpt lat="42.28605" lon="0.05853">
        <ele>897.1</ele>
        <time>2015-09-24T08:35:18Z</time>
      </trkpt>
      <trkpt lat="42.28602" lon="0.05853">
        <ele>896.9</ele>
        <time>2015-09-24T08:35:25Z</time>
      </trkpt>
      <trkpt lat="42.28598" lon="0.05853">
        <ele>896.5</ele>
        <time>2015-09-24T08:35:32Z</time>
      </trkpt>
      <trkpt lat="42.28594" lon="0.05852">
        <ele>896.2</ele>
        <time>2015-09-24T08:35:34Z</time>
      </trkpt>
      <trkpt lat="42.28591" lon="0.05852">
        <ele>895.9</ele>
        <time>2015-09-24T08:35:36Z</time>
      </trkpt>
      <trkpt lat="42.28587" lon="0.05851">
        <ele>895.6</ele>
        <time>2015-09-24T08:35:38Z</time>
      </trkpt>
      <trkpt lat="42.28584" lon="0.0585">
        <ele>895.3</ele>
        <time>2015-09-24T08:35:40Z</time>
      </trkpt>
      <trkpt lat="42.2858" lon="0.0585">
        <ele>895</ele>
        <time>2015-09-24T08:35:42Z</time>
      </trkpt>
      <trkpt lat="42.28576" lon="0.05849">
        <ele>894.6</ele>
        <time>2015-09-24T08:35:44Z</time>
      </trkpt>
      <trkpt lat="42.28573" lon="0.05847">
        <ele>894.3</ele>
        <time>2015-09-24T08:35:46Z</time>
      </trkpt>
      <trkpt lat="42.28567" lon="0.05845">
        <ele>893.7</ele>
        <time>2015-09-24T08:35:48Z</time>
      </trkpt>
      <trkpt lat="42.28564" lon="0.05845">
        <ele>893.5</ele>
        <time>2015-09-24T08:35:49Z</time>
      </trkpt>
      <trkpt lat="42.28561" lon="0.05845">
        <ele>893.2</ele>
        <time>2015-09-24T08:35:50Z</time>
      </trkpt>
      <trkpt lat="42.28558" lon="0.05844">
        <ele>892.9</ele>
        <time>2015-09-24T08:35:51Z</time>
      </trkpt>
      <trkpt lat="42.28554" lon="0.05842">
        <ele>892.5</ele>
        <time>2015-09-24T08:35:53Z</time>
      </trkpt>
      <trkpt lat="42.28552" lon="0.05839">
        <ele>892.2</ele>
        <time>2015-09-24T08:35:55Z</time>
      </trkpt>
      <trkpt lat="42.2855" lon="0.05836">
        <ele>891.8</ele>
        <time>2015-09-24T08:35:57Z</time>
      </trkpt>
      <trkpt lat="42.28547" lon="0.05834">
        <ele>891.5</ele>
        <time>2015-09-24T08:35:59Z</time>
      </trkpt>
      <trkpt lat="42.28544" lon="0.05834">
        <ele>891.2</ele>
        <time>2015-09-24T08:36:02Z</time>
      </trkpt>
      <trkpt lat="42.28541" lon="0.05836">
        <ele>891</ele>
        <time>2015-09-24T08:36:04Z</time>
      </trkpt>
      <trkpt lat="42.28538" lon="0.05837">
        <ele>890.8</ele>
        <time>2015-09-24T08:36:05Z</time>
      </trkpt>
      <trkpt lat="42.28536" lon="0.0584">
        <ele>890.7</ele>
        <time>2015-09-24T08:36:06Z</time>
      </trkpt>
      <trkpt lat="42.28533" lon="0.05842">
        <ele>890.6</ele>
        <time>2015-09-24T08:36:07Z</time>
      </trkpt>
      <trkpt lat="42.28531" lon="0.05844">
        <ele>890.4</ele>
        <time>2015-09-24T08:36:08Z</time>
      </trkpt>
      <trkpt lat="42.28527" lon="0.05848">
        <ele>890.2</ele>
        <time>2015-09-24T08:36:10Z</time>
      </trkpt>
      <trkpt lat="42.28524" lon="0.05847">
        <ele>889.8</ele>
        <time>2015-09-24T08:36:14Z</time>
      </trkpt>
      <trkpt lat="42.2852" lon="0.05847">
        <ele>889.5</ele>
        <time>2015-09-24T08:36:16Z</time>
      </trkpt>
      <trkpt lat="42.28516" lon="0.05849">
        <ele>889.1</ele>
        <time>2015-09-24T08:36:18Z</time>
      </trkpt>
      <trkpt lat="42.28512" lon="0.05851">
        <ele>888.9</ele>
        <time>2015-09-24T08:36:19Z</time>
      </trkpt>
      <trkpt lat="42.28509" lon="0.05852">
        <ele>888.7</ele>
        <time>2015-09-24T08:36:20Z</time>
      </trkpt>
      <trkpt lat="42.28507" lon="0.05854">
        <ele>888.5</ele>
        <time>2015-09-24T08:36:21Z</time>
      </trkpt>
      <trkpt lat="42.28504" lon="0.05856">
        <ele>888.4</ele>
        <time>2015-09-24T08:36:23Z</time>
      </trkpt>
      <trkpt lat="42.28501" lon="0.05859">
        <ele>888.2</ele>
        <time>2015-09-24T08:36:25Z</time>
      </trkpt>
      <trkpt lat="42.28496" lon="0.05864">
        <ele>887.9</ele>
        <time>2015-09-24T08:36:27Z</time>
      </trkpt>
      <trkpt lat="42.28492" lon="0.05866">
        <ele>887.8</ele>
        <time>2015-09-24T08:36:28Z</time>
      </trkpt>
      <trkpt lat="42.28489" lon="0.05868">
        <ele>887.6</ele>
        <time>2015-09-24T08:36:29Z</time>
      </trkpt>
      <trkpt lat="42.28487" lon="0.0587">
        <ele>887.5</ele>
        <time>2015-09-24T08:36:30Z</time>
      </trkpt>
      <trkpt lat="42.28484" lon="0.05874">
        <ele>887.4</ele>
        <time>2015-09-24T08:36:32Z</time>
      </trkpt>
      <trkpt lat="42.28482" lon="0.05877">
        <ele>887.3</ele>
        <time>2015-09-24T08:36:35Z</time>
      </trkpt>
      <trkpt lat="42.28479" lon="0.05877">
        <ele>887</ele>
        <time>2015-09-24T08:36:37Z</time>
      </trkpt>
      <trkpt lat="42.28474" lon="0.05877">
        <ele>886.6</ele>
        <time>2015-09-24T08:36:39Z</time>
      </trkpt>
      <trkpt lat="42.28472" lon="0.05878">
        <ele>886.4</ele>
        <time>2015-09-24T08:36:40Z</time>
      </trkpt>
      <trkpt lat="42.28469" lon="0.0588">
        <ele>886.2</ele>
        <time>2015-09-24T08:36:41Z</time>
      </trkpt>
      <trkpt lat="42.28466" lon="0.05882">
        <ele>886</ele>
        <time>2015-09-24T08:36:42Z</time>
      </trkpt>
      <trkpt lat="42.28464" lon="0.05884">
        <ele>885.8</ele>
        <time>2015-09-24T08:36:43Z</time>
      </trkpt>
      <trkpt lat="42.28461" lon="0.05885">
        <ele>885.6</ele>
        <time>2015-09-24T08:36:44Z</time>
      </trkpt>
      <trkpt lat="42.28459" lon="0.05888">
        <ele>885.5</ele>
        <time>2015-09-24T08:36:45Z</time>
      </trkpt>
      <trkpt lat="42.28457" lon="0.0589">
        <ele>885.4</ele>
        <time>2015-09-24T08:36:46Z</time>
      </trkpt>
      <trkpt lat="42.28451" lon="0.0589">
        <ele>884.8</ele>
        <time>2015-09-24T08:36:48Z</time>
      </trkpt>
      <trkpt lat="42.28449" lon="0.05888">
        <ele>884.5</ele>
        <time>2015-09-24T08:36:49Z</time>
      </trkpt>
      <trkpt lat="42.28446" lon="0.05888">
        <ele>884.2</ele>
        <time>2015-09-24T08:36:50Z</time>
      </trkpt>
      <trkpt lat="42.28444" lon="0.0589">
        <ele>884</ele>
        <time>2015-09-24T08:36:51Z</time>
      </trkpt>
      <trkpt lat="42.28441" lon="0.05892">
        <ele>883.8</ele>
        <time>2015-09-24T08:36:52Z</time>
      </trkpt>
      <trkpt lat="42.28438" lon="0.05895">
        <ele>883.7</ele>
        <time>2015-09-24T08:36:53Z</time>
      </trkpt>
      <trkpt lat="42.28435" lon="0.05899">
        <ele>883.5</ele>
        <time>2015-09-24T08:36:54Z</time>
      </trkpt>
      <trkpt lat="42.28433" lon="0.05902">
        <ele>883.4</ele>
        <time>2015-09-24T08:36:55Z</time>
      </trkpt>
      <trkpt lat="42.2843" lon="0.05906">
        <ele>883.3</ele>
        <time>2015-09-24T08:36:56Z</time>
      </trkpt>
      <trkpt lat="42.28426" lon="0.05907">
        <ele>882.9</ele>
        <time>2015-09-24T08:36:57Z</time>
      </trkpt>
      <trkpt lat="42.28422" lon="0.05907">
        <ele>882.5</ele>
        <time>2015-09-24T08:36:58Z</time>
      </trkpt>
      <trkpt lat="42.28417" lon="0.05905">
        <ele>882</ele>
        <time>2015-09-24T08:36:59Z</time>
      </trkpt>
      <trkpt lat="42.28411" lon="0.05902">
        <ele>881.2</ele>
        <time>2015-09-24T08:37:00Z</time>
      </trkpt>
      <trkpt lat="42.28407" lon="0.05899">
        <ele>880.6</ele>
        <time>2015-09-24T08:37:01Z</time>
      </trkpt>
      <trkpt lat="42.28402" lon="0.05897">
        <ele>880.1</ele>
        <time>2015-09-24T08:37:02Z</time>
      </trkpt>
      <trkpt lat="42.28399" lon="0.05895">
        <ele>879.7</ele>
        <time>2015-09-24T08:37:03Z</time>
      </trkpt>
      <trkpt lat="42.28396" lon="0.05895">
        <ele>879.3</ele>
        <time>2015-09-24T08:37:04Z</time>
      </trkpt>
      <trkpt lat="42.28393" lon="0.05895">
        <ele>879</ele>
        <time>2015-09-24T08:37:05Z</time>
      </trkpt>
      <trkpt lat="42.28389" lon="0.05895">
        <ele>878.6</ele>
        <time>2015-09-24T08:37:28Z</time>
      </trkpt>
      <trkpt lat="42.28385" lon="0.05895">
        <ele>878.2</ele>
        <time>2015-09-24T08:37:30Z</time>
      </trkpt>
      <trkpt lat="42.28379" lon="0.05896">
        <ele>877.6</ele>
        <time>2015-09-24T08:37:32Z</time>
      </trkpt>
      <trkpt lat="42.28375" lon="0.05898">
        <ele>877.3</ele>
        <time>2015-09-24T08:37:33Z</time>
      </trkpt>
      <trkpt lat="42.28371" lon="0.05899">
        <ele>877</ele>
        <time>2015-09-24T08:37:34Z</time>
      </trkpt>
      <trkpt lat="42.28366" lon="0.05901">
        <ele>876.6</ele>
        <time>2015-09-24T08:37:35Z</time>
      </trkpt>
      <trkpt lat="42.28362" lon="0.05902">
        <ele>876.2</ele>
        <time>2015-09-24T08:37:36Z</time>
      </trkpt>
      <trkpt lat="42.28357" lon="0.05903">
        <ele>875.7</ele>
        <time>2015-09-24T08:37:37Z</time>
      </trkpt>
      <trkpt lat="42.28353" lon="0.05903">
        <ele>875.2</ele>
        <time>2015-09-24T08:37:38Z</time>
      </trkpt>
      <trkpt lat="42.28348" lon="0.05903">
        <ele>874.8</ele>
        <time>2015-09-24T08:37:39Z</time>
      </trkpt>
      <trkpt lat="42.28342" lon="0.05906">
        <ele>874.3</ele>
        <time>2015-09-24T08:37:40Z</time>
      </trkpt>
      <trkpt lat="42.28338" lon="0.05907">
        <ele>874</ele>
        <time>2015-09-24T08:37:41Z</time>
      </trkpt>
      <trkpt lat="42.28334" lon="0.0591">
        <ele>873.7</ele>
        <time>2015-09-24T08:37:42Z</time>
      </trkpt>
      <trkpt lat="42.28331" lon="0.05914">
        <ele>873.5</ele>
        <time>2015-09-24T08:37:43Z</time>
      </trkpt>
      <trkpt lat="42.28328" lon="0.05918">
        <ele>873.5</ele>
        <time>2015-09-24T08:37:44Z</time>
      </trkpt>
      <trkpt lat="42.28325" lon="0.05924">
        <ele>873.6</ele>
        <time>2015-09-24T08:37:45Z</time>
      </trkpt>
      <trkpt lat="42.28323" lon="0.05929">
        <ele>873.6</ele>
        <time>2015-09-24T08:37:46Z</time>
      </trkpt>
      <trkpt lat="42.2832" lon="0.05935">
        <ele>873.6</ele>
        <time>2015-09-24T08:37:47Z</time>
      </trkpt>
      <trkpt lat="42.28317" lon="0.0594">
        <ele>873.7</ele>
        <time>2015-09-24T08:37:48Z</time>
      </trkpt>
      <trkpt lat="42.28315" lon="0.05944">
        <ele>873.7</ele>
        <time>2015-09-24T08:37:49Z</time>
      </trkpt>
      <trkpt lat="42.28312" lon="0.05948">
        <ele>873.6</ele>
        <time>2015-09-24T08:37:51Z</time>
      </trkpt>
      <trkpt lat="42.28309" lon="0.05947">
        <ele>873.1</ele>
        <time>2015-09-24T08:37:53Z</time>
      </trkpt>
      <trkpt lat="42.28305" lon="0.05942">
        <ele>872.5</ele>
        <time>2015-09-24T08:37:55Z</time>
      </trkpt>
      <trkpt lat="42.28302" lon="0.05939">
        <ele>871.9</ele>
        <time>2015-09-24T08:37:57Z</time>
      </trkpt>
      <trkpt lat="42.28299" lon="0.05939">
        <ele>871.7</ele>
        <time>2015-09-24T08:38:05Z</time>
      </trkpt>
      <trkpt lat="42.28297" lon="0.05941">
        <ele>871.5</ele>
        <time>2015-09-24T08:38:10Z</time>
      </trkpt>
      <trkpt lat="42.28294" lon="0.05942">
        <ele>871.2</ele>
        <time>2015-09-24T08:38:16Z</time>
      </trkpt>
      <trkpt lat="42.28292" lon="0.05943">
        <ele>871.1</ele>
        <time>2015-09-24T08:38:23Z</time>
      </trkpt>
      <trkpt lat="42.28293" lon="0.0594">
        <ele>871</ele>
        <time>2015-09-24T08:39:41Z</time>
      </trkpt>
      <trkpt lat="42.28288" lon="0.05943">
        <ele>870.5</ele>
        <time>2015-09-24T08:41:12Z</time>
      </trkpt>
      <trkpt lat="42.28285" lon="0.05941">
        <ele>870</ele>
        <time>2015-09-24T08:41:16Z</time>
      </trkpt>
      <trkpt lat="42.28282" lon="0.05938">
        <ele>869.4</ele>
        <time>2015-09-24T08:41:18Z</time>
      </trkpt>
      <trkpt lat="42.28278" lon="0.05936">
        <ele>868.6</ele>
        <time>2015-09-24T08:41:20Z</time>
      </trkpt>
      <trkpt lat="42.28275" lon="0.05935">
        <ele>868.1</ele>
        <time>2015-09-24T08:41:21Z</time>
      </trkpt>
      <trkpt lat="42.28272" lon="0.05935">
        <ele>867.6</ele>
        <time>2015-09-24T08:41:22Z</time>
      </trkpt>
      <trkpt lat="42.28268" lon="0.05934">
        <ele>867</ele>
        <time>2015-09-24T08:41:23Z</time>
      </trkpt>
      <trkpt lat="42.28264" lon="0.05933">
        <ele>866.4</ele>
        <time>2015-09-24T08:41:24Z</time>
      </trkpt>
      <trkpt lat="42.28261" lon="0.05931">
        <ele>865.7</ele>
        <time>2015-09-24T08:41:25Z</time>
      </trkpt>
      <trkpt lat="42.28257" lon="0.05929">
        <ele>865.1</ele>
        <time>2015-09-24T08:41:26Z</time>
      </trkpt>
      <trkpt lat="42.28253" lon="0.05926">
        <ele>864.4</ele>
        <time>2015-09-24T08:41:27Z</time>
      </trkpt>
      <trkpt lat="42.2825" lon="0.05922">
        <ele>863.7</ele>
        <time>2015-09-24T08:41:28Z</time>
      </trkpt>
      <trkpt lat="42.28246" lon="0.05919">
        <ele>863.1</ele>
        <time>2015-09-24T08:41:29Z</time>
      </trkpt>
      <trkpt lat="42.28243" lon="0.05917">
        <ele>862.4</ele>
        <time>2015-09-24T08:41:30Z</time>
      </trkpt>
      <trkpt lat="42.28239" lon="0.05915">
        <ele>861.8</ele>
        <time>2015-09-24T08:41:31Z</time>
      </trkpt>
      <trkpt lat="42.28234" lon="0.05914">
        <ele>861.1</ele>
        <time>2015-09-24T08:41:32Z</time>
      </trkpt>
      <trkpt lat="42.28228" lon="0.05915">
        <ele>860.3</ele>
        <time>2015-09-24T08:41:33Z</time>
      </trkpt>
      <trkpt lat="42.28225" lon="0.05915">
        <ele>859.8</ele>
        <time>2015-09-24T08:41:34Z</time>
      </trkpt>
      <trkpt lat="42.28221" lon="0.05914">
        <ele>859.3</ele>
        <time>2015-09-24T08:41:35Z</time>
      </trkpt>
      <trkpt lat="42.28216" lon="0.05916">
        <ele>858.6</ele>
        <time>2015-09-24T08:41:37Z</time>
      </trkpt>
      <trkpt lat="42.28215" lon="0.0592">
        <ele>858.5</ele>
        <time>2015-09-24T08:41:38Z</time>
      </trkpt>
      <trkpt lat="42.28212" lon="0.05923">
        <ele>858.3</ele>
        <time>2015-09-24T08:41:39Z</time>
      </trkpt>
      <trkpt lat="42.28209" lon="0.05927">
        <ele>858</ele>
        <time>2015-09-24T08:41:40Z</time>
      </trkpt>
      <trkpt lat="42.28207" lon="0.05932">
        <ele>857.9</ele>
        <time>2015-09-24T08:41:41Z</time>
      </trkpt>
      <trkpt lat="42.28205" lon="0.05935">
        <ele>857.7</ele>
        <time>2015-09-24T08:41:42Z</time>
      </trkpt>
      <trkpt lat="42.28202" lon="0.05938">
        <ele>857.5</ele>
        <time>2015-09-24T08:41:43Z</time>
      </trkpt>
      <trkpt lat="42.28199" lon="0.0594">
        <ele>857.2</ele>
        <time>2015-09-24T08:41:44Z</time>
      </trkpt>
      <trkpt lat="42.28196" lon="0.05942">
        <ele>856.9</ele>
        <time>2015-09-24T08:41:45Z</time>
      </trkpt>
      <trkpt lat="42.28193" lon="0.05945">
        <ele>856.7</ele>
        <time>2015-09-24T08:41:47Z</time>
      </trkpt>
      <trkpt lat="42.28193" lon="0.05949">
        <ele>856.8</ele>
        <time>2015-09-24T08:42:01Z</time>
      </trkpt>
      <trkpt lat="42.28192" lon="0.05952">
        <ele>856.7</ele>
        <time>2015-09-24T08:42:13Z</time>
      </trkpt>
      <trkpt lat="42.28189" lon="0.05952">
        <ele>856.4</ele>
        <time>2015-09-24T08:42:17Z</time>
      </trkpt>
      <trkpt lat="42.28186" lon="0.05953">
        <ele>856.1</ele>
        <time>2015-09-24T08:42:18Z</time>
      </trkpt>
      <trkpt lat="42.28182" lon="0.05954">
        <ele>855.7</ele>
        <time>2015-09-24T08:42:19Z</time>
      </trkpt>
      <trkpt lat="42.28179" lon="0.05956">
        <ele>855.4</ele>
        <time>2015-09-24T08:42:20Z</time>
      </trkpt>
      <trkpt lat="42.28175" lon="0.05959">
        <ele>855.1</ele>
        <time>2015-09-24T08:42:21Z</time>
      </trkpt>
      <trkpt lat="42.28172" lon="0.05962">
        <ele>854.8</ele>
        <time>2015-09-24T08:42:22Z</time>
      </trkpt>
      <trkpt lat="42.28169" lon="0.05966">
        <ele>854.7</ele>
        <time>2015-09-24T08:42:23Z</time>
      </trkpt>
      <trkpt lat="42.28167" lon="0.05971">
        <ele>854.8</ele>
        <time>2015-09-24T08:42:24Z</time>
      </trkpt>
      <trkpt lat="42.28166" lon="0.05976">
        <ele>855</ele>
        <time>2015-09-24T08:42:25Z</time>
      </trkpt>
      <trkpt lat="42.28165" lon="0.0598">
        <ele>855.1</ele>
        <time>2015-09-24T08:42:26Z</time>
      </trkpt>
      <trkpt lat="42.28162" lon="0.05984">
        <ele>855.1</ele>
        <time>2015-09-24T08:42:27Z</time>
      </trkpt>
      <trkpt lat="42.28158" lon="0.05987">
        <ele>854.8</ele>
        <time>2015-09-24T08:42:28Z</time>
      </trkpt>
      <trkpt lat="42.28154" lon="0.05988">
        <ele>854.5</ele>
        <time>2015-09-24T08:42:29Z</time>
      </trkpt>
      <trkpt lat="42.2815" lon="0.0599">
        <ele>854.3</ele>
        <time>2015-09-24T08:42:30Z</time>
      </trkpt>
      <trkpt lat="42.28147" lon="0.05994">
        <ele>854.1</ele>
        <time>2015-09-24T08:42:31Z</time>
      </trkpt>
      <trkpt lat="42.28143" lon="0.05997">
        <ele>854</ele>
        <time>2015-09-24T08:42:32Z</time>
      </trkpt>
      <trkpt lat="42.28139" lon="0.06">
        <ele>853.9</ele>
        <time>2015-09-24T08:42:33Z</time>
      </trkpt>
      <trkpt lat="42.28135" lon="0.06002">
        <ele>853.7</ele>
        <time>2015-09-24T08:42:34Z</time>
      </trkpt>
      <trkpt lat="42.28131" lon="0.06004">
        <ele>853.4</ele>
        <time>2015-09-24T08:42:35Z</time>
      </trkpt>
      <trkpt lat="42.28127" lon="0.06006">
        <ele>853.2</ele>
        <time>2015-09-24T08:42:36Z</time>
      </trkpt>
      <trkpt lat="42.28123" lon="0.06008">
        <ele>853.1</ele>
        <time>2015-09-24T08:42:37Z</time>
      </trkpt>
      <trkpt lat="42.28119" lon="0.06009">
        <ele>853.1</ele>
        <time>2015-09-24T08:42:38Z</time>
      </trkpt>
      <trkpt lat="42.28114" lon="0.0601">
        <ele>853</ele>
        <time>2015-09-24T08:42:39Z</time>
      </trkpt>
      <trkpt lat="42.2811" lon="0.06009">
        <ele>852.8</ele>
        <time>2015-09-24T08:42:40Z</time>
      </trkpt>
      <trkpt lat="42.28105" lon="0.06009">
        <ele>852.7</ele>
        <time>2015-09-24T08:42:41Z</time>
      </trkpt>
      <trkpt lat="42.28101" lon="0.06008">
        <ele>852.5</ele>
        <time>2015-09-24T08:42:42Z</time>
      </trkpt>
      <trkpt lat="42.28097" lon="0.0601">
        <ele>852.6</ele>
        <time>2015-09-24T08:42:43Z</time>
      </trkpt>
      <trkpt lat="42.28095" lon="0.0601">
        <ele>852.4</ele>
        <time>2015-09-24T08:42:44Z</time>
      </trkpt>
      <trkpt lat="42.28091" lon="0.06008">
        <ele>852.2</ele>
        <time>2015-09-24T08:42:45Z</time>
      </trkpt>
      <trkpt lat="42.28088" lon="0.06006">
        <ele>851.9</ele>
        <time>2015-09-24T08:42:46Z</time>
      </trkpt>
      <trkpt lat="42.28084" lon="0.06005">
        <ele>851.7</ele>
        <time>2015-09-24T08:42:47Z</time>
      </trkpt>
      <trkpt lat="42.28081" lon="0.06003">
        <ele>851.5</ele>
        <time>2015-09-24T08:42:48Z</time>
      </trkpt>
      <trkpt lat="42.28078" lon="0.06001">
        <ele>851.2</ele>
        <time>2015-09-24T08:42:49Z</time>
      </trkpt>
      <trkpt lat="42.28077" lon="0.05997">
        <ele>850.7</ele>
        <time>2015-09-24T08:42:51Z</time>
      </trkpt>
      <trkpt lat="42.28077" lon="0.05993">
        <ele>850.4</ele>
        <time>2015-09-24T08:42:52Z</time>
      </trkpt>
      <trkpt lat="42.28076" lon="0.05989">
        <ele>850</ele>
        <time>2015-09-24T08:42:53Z</time>
      </trkpt>
      <trkpt lat="42.28075" lon="0.05985">
        <ele>849.6</ele>
        <time>2015-09-24T08:42:54Z</time>
      </trkpt>
      <trkpt lat="42.28073" lon="0.0598">
        <ele>849.1</ele>
        <time>2015-09-24T08:42:55Z</time>
      </trkpt>
      <trkpt lat="42.28072" lon="0.05976">
        <ele>848.7</ele>
        <time>2015-09-24T08:42:56Z</time>
      </trkpt>
      <trkpt lat="42.28067" lon="0.05972">
        <ele>848.2</ele>
        <time>2015-09-24T08:42:57Z</time>
      </trkpt>
      <trkpt lat="42.28063" lon="0.05969">
        <ele>847.7</ele>
        <time>2015-09-24T08:42:58Z</time>
      </trkpt>
      <trkpt lat="42.2806" lon="0.05965">
        <ele>847.2</ele>
        <time>2015-09-24T08:42:59Z</time>
      </trkpt>
      <trkpt lat="42.28057" lon="0.0596">
        <ele>846.7</ele>
        <time>2015-09-24T08:43:00Z</time>
      </trkpt>
      <trkpt lat="42.28056" lon="0.05955">
        <ele>846.2</ele>
        <time>2015-09-24T08:43:01Z</time>
      </trkpt>
      <trkpt lat="42.28054" lon="0.0595">
        <ele>845.6</ele>
        <time>2015-09-24T08:43:02Z</time>
      </trkpt>
      <trkpt lat="42.28054" lon="0.05944">
        <ele>845</ele>
        <time>2015-09-24T08:43:04Z</time>
      </trkpt>
      <trkpt lat="42.28049" lon="0.05941">
        <ele>844.5</ele>
        <time>2015-09-24T08:43:06Z</time>
      </trkpt>
      <trkpt lat="42.28046" lon="0.0594">
        <ele>844.3</ele>
        <time>2015-09-24T08:43:07Z</time>
      </trkpt>
      <trkpt lat="42.28044" lon="0.05939">
        <ele>844</ele>
        <time>2015-09-24T08:43:08Z</time>
      </trkpt>
      <trkpt lat="42.28042" lon="0.05936">
        <ele>843.6</ele>
        <time>2015-09-24T08:43:09Z</time>
      </trkpt>
      <trkpt lat="42.28041" lon="0.05932">
        <ele>843.1</ele>
        <time>2015-09-24T08:43:10Z</time>
      </trkpt>
      <trkpt lat="42.2804" lon="0.05928">
        <ele>842.6</ele>
        <time>2015-09-24T08:43:11Z</time>
      </trkpt>
      <trkpt lat="42.28039" lon="0.05924">
        <ele>842.1</ele>
        <time>2015-09-24T08:43:12Z</time>
      </trkpt>
      <trkpt lat="42.28038" lon="0.0592">
        <ele>841.5</ele>
        <time>2015-09-24T08:43:13Z</time>
      </trkpt>
      <trkpt lat="42.28036" lon="0.05916">
        <ele>841</ele>
        <time>2015-09-24T08:43:14Z</time>
      </trkpt>
      <trkpt lat="42.28034" lon="0.05912">
        <ele>840.4</ele>
        <time>2015-09-24T08:43:15Z</time>
      </trkpt>
      <trkpt lat="42.28031" lon="0.05908">
        <ele>839.8</ele>
        <time>2015-09-24T08:43:16Z</time>
      </trkpt>
      <trkpt lat="42.28028" lon="0.05903">
        <ele>839.1</ele>
        <time>2015-09-24T08:43:17Z</time>
      </trkpt>
      <trkpt lat="42.28026" lon="0.05899">
        <ele>838.4</ele>
        <time>2015-09-24T08:43:18Z</time>
      </trkpt>
      <trkpt lat="42.28023" lon="0.05894">
        <ele>837.7</ele>
        <time>2015-09-24T08:43:19Z</time>
      </trkpt>
      <trkpt lat="42.28019" lon="0.0589">
        <ele>837</ele>
        <time>2015-09-24T08:43:20Z</time>
      </trkpt>
      <trkpt lat="42.28016" lon="0.05886">
        <ele>836.4</ele>
        <time>2015-09-24T08:43:21Z</time>
      </trkpt>
      <trkpt lat="42.28013" lon="0.05883">
        <ele>835.8</ele>
        <time>2015-09-24T08:43:22Z</time>
      </trkpt>
      <trkpt lat="42.2801" lon="0.05879">
        <ele>835.2</ele>
        <time>2015-09-24T08:43:23Z</time>
      </trkpt>
      <trkpt lat="42.28007" lon="0.05876">
        <ele>834.6</ele>
        <time>2015-09-24T08:43:24Z</time>
      </trkpt>
      <trkpt lat="42.28004" lon="0.05873">
        <ele>834.5</ele>
        <time>2015-09-24T08:43:25Z</time>
      </trkpt>
      <trkpt lat="42.28" lon="0.05871">
        <ele>834.4</ele>
        <time>2015-09-24T08:43:26Z</time>
      </trkpt>
      <trkpt lat="42.27997" lon="0.05869">
        <ele>834.5</ele>
        <time>2015-09-24T08:43:27Z</time>
      </trkpt>
      <trkpt lat="42.27993" lon="0.05866">
        <ele>834.5</ele>
        <time>2015-09-24T08:43:28Z</time>
      </trkpt>
      <trkpt lat="42.2799" lon="0.05863">
        <ele>834.6</ele>
        <time>2015-09-24T08:43:29Z</time>
      </trkpt>
      <trkpt lat="42.27987" lon="0.05861">
        <ele>834.7</ele>
        <time>2015-09-24T08:43:30Z</time>
      </trkpt>
      <trkpt lat="42.27983" lon="0.0586">
        <ele>834.5</ele>
        <time>2015-09-24T08:43:31Z</time>
      </trkpt>
      <trkpt lat="42.27979" lon="0.05859">
        <ele>834.3</ele>
        <time>2015-09-24T08:43:32Z</time>
      </trkpt>
      <trkpt lat="42.27973" lon="0.05861">
        <ele>833.8</ele>
        <time>2015-09-24T08:43:33Z</time>
      </trkpt>
      <trkpt lat="42.27968" lon="0.05861">
        <ele>833.3</ele>
        <time>2015-09-24T08:43:34Z</time>
      </trkpt>
      <trkpt lat="42.27963" lon="0.05861">
        <ele>833</ele>
        <time>2015-09-24T08:43:35Z</time>
      </trkpt>
      <trkpt lat="42.27959" lon="0.05861">
        <ele>832.8</ele>
        <time>2015-09-24T08:43:36Z</time>
      </trkpt>
      <trkpt lat="42.27955" lon="0.05861">
        <ele>832.4</ele>
        <time>2015-09-24T08:43:37Z</time>
      </trkpt>
      <trkpt lat="42.2795" lon="0.05862">
        <ele>831.8</ele>
        <time>2015-09-24T08:43:38Z</time>
      </trkpt>
      <trkpt lat="42.27946" lon="0.05863">
        <ele>831.3</ele>
        <time>2015-09-24T08:43:39Z</time>
      </trkpt>
      <trkpt lat="42.27941" lon="0.05863">
        <ele>831</ele>
        <time>2015-09-24T08:43:40Z</time>
      </trkpt>
      <trkpt lat="42.27937" lon="0.05862">
        <ele>830.8</ele>
        <time>2015-09-24T08:43:41Z</time>
      </trkpt>
      <trkpt lat="42.27934" lon="0.0586">
        <ele>830.7</ele>
        <time>2015-09-24T08:43:42Z</time>
      </trkpt>
      <trkpt lat="42.2793" lon="0.05858">
        <ele>830.6</ele>
        <time>2015-09-24T08:43:43Z</time>
      </trkpt>
      <trkpt lat="42.27927" lon="0.05857">
        <ele>830.5</ele>
        <time>2015-09-24T08:43:44Z</time>
      </trkpt>
      <trkpt lat="42.27924" lon="0.05857">
        <ele>830.2</ele>
        <time>2015-09-24T08:43:45Z</time>
      </trkpt>
      <trkpt lat="42.27921" lon="0.05857">
        <ele>830</ele>
        <time>2015-09-24T08:43:46Z</time>
      </trkpt>
      <trkpt lat="42.27918" lon="0.05856">
        <ele>829.8</ele>
        <time>2015-09-24T08:43:47Z</time>
      </trkpt>
      <trkpt lat="42.27914" lon="0.05856">
        <ele>829.5</ele>
        <time>2015-09-24T08:43:48Z</time>
      </trkpt>
      <trkpt lat="42.27911" lon="0.05855">
        <ele>829.3</ele>
        <time>2015-09-24T08:43:49Z</time>
      </trkpt>
      <trkpt lat="42.27908" lon="0.05855">
        <ele>829.1</ele>
        <time>2015-09-24T08:43:50Z</time>
      </trkpt>
      <trkpt lat="42.27905" lon="0.05854">
        <ele>828.9</ele>
        <time>2015-09-24T08:43:51Z</time>
      </trkpt>
      <trkpt lat="42.27902" lon="0.05851">
        <ele>828.9</ele>
        <time>2015-09-24T08:43:52Z</time>
      </trkpt>
      <trkpt lat="42.27899" lon="0.05849">
        <ele>828.9</ele>
        <time>2015-09-24T08:43:53Z</time>
      </trkpt>
      <trkpt lat="42.27897" lon="0.05847">
        <ele>828.9</ele>
        <time>2015-09-24T08:43:54Z</time>
      </trkpt>
      <trkpt lat="42.27893" lon="0.05845">
        <ele>828.8</ele>
        <time>2015-09-24T08:43:55Z</time>
      </trkpt>
      <trkpt lat="42.2789" lon="0.05844">
        <ele>828.7</ele>
        <time>2015-09-24T08:43:56Z</time>
      </trkpt>
      <trkpt lat="42.27887" lon="0.05842">
        <ele>828.7</ele>
        <time>2015-09-24T08:43:57Z</time>
      </trkpt>
      <trkpt lat="42.27884" lon="0.0584">
        <ele>828.6</ele>
        <time>2015-09-24T08:43:58Z</time>
      </trkpt>
      <trkpt lat="42.27881" lon="0.05838">
        <ele>828.5</ele>
        <time>2015-09-24T08:43:59Z</time>
      </trkpt>
      <trkpt lat="42.27878" lon="0.05837">
        <ele>828.3</ele>
        <time>2015-09-24T08:44:00Z</time>
      </trkpt>
      <trkpt lat="42.27875" lon="0.05841">
        <ele>827.7</ele>
        <time>2015-09-24T08:44:02Z</time>
      </trkpt>
      <trkpt lat="42.27872" lon="0.05845">
        <ele>827.1</ele>
        <time>2015-09-24T08:44:04Z</time>
      </trkpt>
      <trkpt lat="42.27869" lon="0.05846">
        <ele>826.7</ele>
        <time>2015-09-24T08:44:06Z</time>
      </trkpt>
      <trkpt lat="42.27865" lon="0.05844">
        <ele>826.7</ele>
        <time>2015-09-24T08:44:08Z</time>
      </trkpt>
      <trkpt lat="42.27863" lon="0.05842">
        <ele>826.8</ele>
        <time>2015-09-24T08:44:10Z</time>
      </trkpt>
      <trkpt lat="42.27859" lon="0.0584">
        <ele>826.8</ele>
        <time>2015-09-24T08:44:12Z</time>
      </trkpt>
      <trkpt lat="42.27856" lon="0.05838">
        <ele>826.9</ele>
        <time>2015-09-24T08:44:14Z</time>
      </trkpt>
      <trkpt lat="42.27854" lon="0.05835">
        <ele>827.2</ele>
        <time>2015-09-24T08:44:15Z</time>
      </trkpt>
      <trkpt lat="42.27851" lon="0.05829">
        <ele>827.8</ele>
        <time>2015-09-24T08:44:17Z</time>
      </trkpt>
      <trkpt lat="42.27849" lon="0.05827">
        <ele>827.9</ele>
        <time>2015-09-24T08:44:18Z</time>
      </trkpt>
      <trkpt lat="42.27846" lon="0.05826">
        <ele>828</ele>
        <time>2015-09-24T08:44:19Z</time>
      </trkpt>
      <trkpt lat="42.27843" lon="0.05824">
        <ele>828.1</ele>
        <time>2015-09-24T08:44:20Z</time>
      </trkpt>
      <trkpt lat="42.2784" lon="0.05822">
        <ele>828.3</ele>
        <time>2015-09-24T08:44:21Z</time>
      </trkpt>
      <trkpt lat="42.27838" lon="0.05819">
        <ele>828.5</ele>
        <time>2015-09-24T08:44:22Z</time>
      </trkpt>
      <trkpt lat="42.27836" lon="0.05817">
        <ele>828.9</ele>
        <time>2015-09-24T08:44:23Z</time>
      </trkpt>
      <trkpt lat="42.27833" lon="0.05811">
        <ele>829.5</ele>
        <time>2015-09-24T08:44:25Z</time>
      </trkpt>
      <trkpt lat="42.27828" lon="0.05807">
        <ele>830</ele>
        <time>2015-09-24T08:44:27Z</time>
      </trkpt>
      <trkpt lat="42.27825" lon="0.05807">
        <ele>830</ele>
        <time>2015-09-24T08:44:28Z</time>
      </trkpt>
      <trkpt lat="42.27823" lon="0.05806">
        <ele>830.1</ele>
        <time>2015-09-24T08:44:29Z</time>
      </trkpt>
      <trkpt lat="42.27818" lon="0.05803">
        <ele>830.4</ele>
        <time>2015-09-24T08:44:31Z</time>
      </trkpt>
      <trkpt lat="42.27814" lon="0.05801">
        <ele>830.7</ele>
        <time>2015-09-24T08:44:33Z</time>
      </trkpt>
      <trkpt lat="42.2781" lon="0.05799">
        <ele>830.9</ele>
        <time>2015-09-24T08:44:35Z</time>
      </trkpt>
      <trkpt lat="42.27806" lon="0.05797">
        <ele>831.3</ele>
        <time>2015-09-24T08:44:37Z</time>
      </trkpt>
      <trkpt lat="42.27803" lon="0.05795">
        <ele>831.6</ele>
        <time>2015-09-24T08:44:39Z</time>
      </trkpt>
      <trkpt lat="42.27799" lon="0.05793">
        <ele>831.9</ele>
        <time>2015-09-24T08:44:42Z</time>
      </trkpt>
      <trkpt lat="42.27796" lon="0.05793">
        <ele>831.9</ele>
        <time>2015-09-24T08:44:44Z</time>
      </trkpt>
      <trkpt lat="42.27792" lon="0.05793">
        <ele>831.8</ele>
        <time>2015-09-24T08:44:46Z</time>
      </trkpt>
      <trkpt lat="42.27787" lon="0.05794">
        <ele>831.6</ele>
        <time>2015-09-24T08:44:48Z</time>
      </trkpt>
      <trkpt lat="42.27782" lon="0.05796">
        <ele>831.2</ele>
        <time>2015-09-24T08:44:50Z</time>
      </trkpt>
      <trkpt lat="42.27779" lon="0.05796">
        <ele>831</ele>
        <time>2015-09-24T08:44:51Z</time>
      </trkpt>
      <trkpt lat="42.27774" lon="0.05796">
        <ele>831.1</ele>
        <time>2015-09-24T08:44:53Z</time>
      </trkpt>
      <trkpt lat="42.27769" lon="0.05797">
        <ele>830.8</ele>
        <time>2015-09-24T08:44:55Z</time>
      </trkpt>
      <trkpt lat="42.27765" lon="0.05799">
        <ele>830.4</ele>
        <time>2015-09-24T08:44:57Z</time>
      </trkpt>
      <trkpt lat="42.2776" lon="0.05799">
        <ele>830.4</ele>
        <time>2015-09-24T08:44:59Z</time>
      </trkpt>
      <trkpt lat="42.27756" lon="0.05799">
        <ele>830.5</ele>
        <time>2015-09-24T08:45:01Z</time>
      </trkpt>
      <trkpt lat="42.27751" lon="0.05798">
        <ele>830.6</ele>
        <time>2015-09-24T08:45:03Z</time>
      </trkpt>
      <trkpt lat="42.27746" lon="0.05799">
        <ele>830.4</ele>
        <time>2015-09-24T08:45:05Z</time>
      </trkpt>
      <trkpt lat="42.27743" lon="0.058">
        <ele>830.2</ele>
        <time>2015-09-24T08:45:06Z</time>
      </trkpt>
      <trkpt lat="42.2774" lon="0.05801">
        <ele>830</ele>
        <time>2015-09-24T08:45:07Z</time>
      </trkpt>
      <trkpt lat="42.27736" lon="0.05801">
        <ele>829.8</ele>
        <time>2015-09-24T08:45:08Z</time>
      </trkpt>
      <trkpt lat="42.27732" lon="0.05802">
        <ele>829.6</ele>
        <time>2015-09-24T08:45:09Z</time>
      </trkpt>
      <trkpt lat="42.27728" lon="0.05803">
        <ele>829.4</ele>
        <time>2015-09-24T08:45:10Z</time>
      </trkpt>
      <trkpt lat="42.27723" lon="0.05804">
        <ele>829.1</ele>
        <time>2015-09-24T08:45:11Z</time>
      </trkpt>
      <trkpt lat="42.27719" lon="0.05804">
        <ele>829</ele>
        <time>2015-09-24T08:45:12Z</time>
      </trkpt>
      <trkpt lat="42.27715" lon="0.05804">
        <ele>829</ele>
        <time>2015-09-24T08:45:13Z</time>
      </trkpt>
      <trkpt lat="42.27711" lon="0.05803">
        <ele>829.2</ele>
        <time>2015-09-24T08:45:14Z</time>
      </trkpt>
      <trkpt lat="42.27708" lon="0.05802">
        <ele>829.4</ele>
        <time>2015-09-24T08:45:15Z</time>
      </trkpt>
      <trkpt lat="42.27706" lon="0.05801">
        <ele>829.4</ele>
        <time>2015-09-24T08:45:16Z</time>
      </trkpt>
      <trkpt lat="42.27703" lon="0.058">
        <ele>829.3</ele>
        <time>2015-09-24T08:45:17Z</time>
      </trkpt>
      <trkpt lat="42.277" lon="0.05799">
        <ele>829.3</ele>
        <time>2015-09-24T08:45:18Z</time>
      </trkpt>
      <trkpt lat="42.27696" lon="0.05798">
        <ele>829.2</ele>
        <time>2015-09-24T08:45:20Z</time>
      </trkpt>
      <trkpt lat="42.27692" lon="0.05798">
        <ele>828.7</ele>
        <time>2015-09-24T08:45:22Z</time>
      </trkpt>
      <trkpt lat="42.27687" lon="0.05798">
        <ele>828.2</ele>
        <time>2015-09-24T08:45:24Z</time>
      </trkpt>
      <trkpt lat="42.27682" lon="0.05798">
        <ele>827.9</ele>
        <time>2015-09-24T08:45:26Z</time>
      </trkpt>
      <trkpt lat="42.2768" lon="0.05797">
        <ele>827.8</ele>
        <time>2015-09-24T08:45:38Z</time>
      </trkpt>
      <trkpt lat="42.27677" lon="0.05798">
        <ele>827.3</ele>
        <time>2015-09-24T08:45:54Z</time>
      </trkpt>
      <trkpt lat="42.27674" lon="0.05798">
        <ele>827</ele>
        <time>2015-09-24T08:45:57Z</time>
      </trkpt>
      <trkpt lat="42.27671" lon="0.05797">
        <ele>826.9</ele>
        <time>2015-09-24T08:46:00Z</time>
      </trkpt>
      <trkpt lat="42.27668" lon="0.05796">
        <ele>826.9</ele>
        <time>2015-09-24T08:46:05Z</time>
      </trkpt>
      <trkpt lat="42.27665" lon="0.05795">
        <ele>826.7</ele>
        <time>2015-09-24T08:46:10Z</time>
      </trkpt>
      <trkpt lat="42.27661" lon="0.05795">
        <ele>826.3</ele>
        <time>2015-09-24T08:46:18Z</time>
      </trkpt>
      <trkpt lat="42.27658" lon="0.05796">
        <ele>825.8</ele>
        <time>2015-09-24T08:46:20Z</time>
      </trkpt>
      <trkpt lat="42.27653" lon="0.05797">
        <ele>825.2</ele>
        <time>2015-09-24T08:46:22Z</time>
      </trkpt>
      <trkpt lat="42.27651" lon="0.05798">
        <ele>824.7</ele>
        <time>2015-09-24T08:46:23Z</time>
      </trkpt>
      <trkpt lat="42.27646" lon="0.05801">
        <ele>823.8</ele>
        <time>2015-09-24T08:46:25Z</time>
      </trkpt>
      <trkpt lat="42.27641" lon="0.05804">
        <ele>822.8</ele>
        <time>2015-09-24T08:46:27Z</time>
      </trkpt>
      <trkpt lat="42.27639" lon="0.05806">
        <ele>822.3</ele>
        <time>2015-09-24T08:46:28Z</time>
      </trkpt>
      <trkpt lat="42.27636" lon="0.05808">
        <ele>821.7</ele>
        <time>2015-09-24T08:46:29Z</time>
      </trkpt>
      <trkpt lat="42.27632" lon="0.05809">
        <ele>821.3</ele>
        <time>2015-09-24T08:46:30Z</time>
      </trkpt>
      <trkpt lat="42.27629" lon="0.05809">
        <ele>821.1</ele>
        <time>2015-09-24T08:46:31Z</time>
      </trkpt>
      <trkpt lat="42.27626" lon="0.05807">
        <ele>821.1</ele>
        <time>2015-09-24T08:46:32Z</time>
      </trkpt>
      <trkpt lat="42.27623" lon="0.05805">
        <ele>821</ele>
        <time>2015-09-24T08:46:33Z</time>
      </trkpt>
      <trkpt lat="42.2762" lon="0.05805">
        <ele>820.8</ele>
        <time>2015-09-24T08:46:34Z</time>
      </trkpt>
      <trkpt lat="42.27617" lon="0.05807">
        <ele>820.4</ele>
        <time>2015-09-24T08:46:35Z</time>
      </trkpt>
      <trkpt lat="42.27615" lon="0.05808">
        <ele>820</ele>
        <time>2015-09-24T08:46:36Z</time>
      </trkpt>
      <trkpt lat="42.27611" lon="0.05808">
        <ele>819.7</ele>
        <time>2015-09-24T08:46:37Z</time>
      </trkpt>
      <trkpt lat="42.27608" lon="0.05808">
        <ele>819.4</ele>
        <time>2015-09-24T08:46:38Z</time>
      </trkpt>
      <trkpt lat="42.27604" lon="0.05809">
        <ele>818.9</ele>
        <time>2015-09-24T08:46:39Z</time>
      </trkpt>
      <trkpt lat="42.276" lon="0.0581">
        <ele>818.5</ele>
        <time>2015-09-24T08:46:40Z</time>
      </trkpt>
      <trkpt lat="42.27596" lon="0.05812">
        <ele>817.9</ele>
        <time>2015-09-24T08:46:41Z</time>
      </trkpt>
      <trkpt lat="42.27593" lon="0.05813">
        <ele>817.5</ele>
        <time>2015-09-24T08:46:42Z</time>
      </trkpt>
      <trkpt lat="42.2759" lon="0.05813">
        <ele>817.2</ele>
        <time>2015-09-24T08:46:43Z</time>
      </trkpt>
      <trkpt lat="42.27585" lon="0.05811">
        <ele>817.1</ele>
        <time>2015-09-24T08:46:45Z</time>
      </trkpt>
      <trkpt lat="42.2758" lon="0.05808">
        <ele>816.9</ele>
        <time>2015-09-24T08:46:47Z</time>
      </trkpt>
      <trkpt lat="42.27578" lon="0.05806">
        <ele>816.9</ele>
        <time>2015-09-24T08:46:48Z</time>
      </trkpt>
      <trkpt lat="42.27576" lon="0.05804">
        <ele>817</ele>
        <time>2015-09-24T08:46:49Z</time>
      </trkpt>
      <trkpt lat="42.27571" lon="0.058">
        <ele>817.1</ele>
        <time>2015-09-24T08:46:51Z</time>
      </trkpt>
      <trkpt lat="42.27569" lon="0.058">
        <ele>816.8</ele>
        <time>2015-09-24T08:46:52Z</time>
      </trkpt>
      <trkpt lat="42.27566" lon="0.05801">
        <ele>816.4</ele>
        <time>2015-09-24T08:46:53Z</time>
      </trkpt>
      <trkpt lat="42.27563" lon="0.05802">
        <ele>816.1</ele>
        <time>2015-09-24T08:46:54Z</time>
      </trkpt>
      <trkpt lat="42.2756" lon="0.05803">
        <ele>815.8</ele>
        <time>2015-09-24T08:46:55Z</time>
      </trkpt>
      <trkpt lat="42.27556" lon="0.058">
        <ele>815.6</ele>
        <time>2015-09-24T08:46:57Z</time>
      </trkpt>
      <trkpt lat="42.27551" lon="0.05798">
        <ele>815.3</ele>
        <time>2015-09-24T08:46:59Z</time>
      </trkpt>
      <trkpt lat="42.27548" lon="0.05796">
        <ele>815.2</ele>
        <time>2015-09-24T08:47:00Z</time>
      </trkpt>
      <trkpt lat="42.27544" lon="0.05794">
        <ele>815</ele>
        <time>2015-09-24T08:47:01Z</time>
      </trkpt>
      <trkpt lat="42.27542" lon="0.05793">
        <ele>814.9</ele>
        <time>2015-09-24T08:47:02Z</time>
      </trkpt>
      <trkpt lat="42.27539" lon="0.05791">
        <ele>814.7</ele>
        <time>2015-09-24T08:47:03Z</time>
      </trkpt>
      <trkpt lat="42.27535" lon="0.05789">
        <ele>814.4</ele>
        <time>2015-09-24T08:47:05Z</time>
      </trkpt>
      <trkpt lat="42.27531" lon="0.05791">
        <ele>813.8</ele>
        <time>2015-09-24T08:47:07Z</time>
      </trkpt>
      <trkpt lat="42.27528" lon="0.05793">
        <ele>813.4</ele>
        <time>2015-09-24T08:47:08Z</time>
      </trkpt>
      <trkpt lat="42.27525" lon="0.05796">
        <ele>812.8</ele>
        <time>2015-09-24T08:47:09Z</time>
      </trkpt>
      <trkpt lat="42.27523" lon="0.05799">
        <ele>812.3</ele>
        <time>2015-09-24T08:47:10Z</time>
      </trkpt>
      <trkpt lat="42.27519" lon="0.05801">
        <ele>811.8</ele>
        <time>2015-09-24T08:47:11Z</time>
      </trkpt>
      <trkpt lat="42.27516" lon="0.05803">
        <ele>811.3</ele>
        <time>2015-09-24T08:47:12Z</time>
      </trkpt>
      <trkpt lat="42.27514" lon="0.05805">
        <ele>810.8</ele>
        <time>2015-09-24T08:47:13Z</time>
      </trkpt>
      <trkpt lat="42.27511" lon="0.05807">
        <ele>810.3</ele>
        <time>2015-09-24T08:47:14Z</time>
      </trkpt>
      <trkpt lat="42.2751" lon="0.05812">
        <ele>809.8</ele>
        <time>2015-09-24T08:47:15Z</time>
      </trkpt>
      <trkpt lat="42.27509" lon="0.05817">
        <ele>809.2</ele>
        <time>2015-09-24T08:47:16Z</time>
      </trkpt>
      <trkpt lat="42.27507" lon="0.05821">
        <ele>808.7</ele>
        <time>2015-09-24T08:47:17Z</time>
      </trkpt>
      <trkpt lat="42.27505" lon="0.05824">
        <ele>808.2</ele>
        <time>2015-09-24T08:47:18Z</time>
      </trkpt>
      <trkpt lat="42.27503" lon="0.05828">
        <ele>807.6</ele>
        <time>2015-09-24T08:47:19Z</time>
      </trkpt>
      <trkpt lat="42.27501" lon="0.0583">
        <ele>807.1</ele>
        <time>2015-09-24T08:47:20Z</time>
      </trkpt>
      <trkpt lat="42.27497" lon="0.05833">
        <ele>806.5</ele>
        <time>2015-09-24T08:47:22Z</time>
      </trkpt>
      <trkpt lat="42.27494" lon="0.05836">
        <ele>805.8</ele>
        <time>2015-09-24T08:47:24Z</time>
      </trkpt>
      <trkpt lat="42.2749" lon="0.05837">
        <ele>805.2</ele>
        <time>2015-09-24T08:47:26Z</time>
      </trkpt>
      <trkpt lat="42.27485" lon="0.05839">
        <ele>804.5</ele>
        <time>2015-09-24T08:47:28Z</time>
      </trkpt>
      <trkpt lat="42.27481" lon="0.05843">
        <ele>803.7</ele>
        <time>2015-09-24T08:47:30Z</time>
      </trkpt>
      <trkpt lat="42.27478" lon="0.05845">
        <ele>803.2</ele>
        <time>2015-09-24T08:47:31Z</time>
      </trkpt>
      <trkpt lat="42.27474" lon="0.05848">
        <ele>802.4</ele>
        <time>2015-09-24T08:47:32Z</time>
      </trkpt>
      <trkpt lat="42.27467" lon="0.0585">
        <ele>801.4</ele>
        <time>2015-09-24T08:47:33Z</time>
      </trkpt>
      <trkpt lat="42.27463" lon="0.05852">
        <ele>800.8</ele>
        <time>2015-09-24T08:47:34Z</time>
      </trkpt>
      <trkpt lat="42.27459" lon="0.05852">
        <ele>800.3</ele>
        <time>2015-09-24T08:47:35Z</time>
      </trkpt>
      <trkpt lat="42.27456" lon="0.05852">
        <ele>799.8</ele>
        <time>2015-09-24T08:47:36Z</time>
      </trkpt>
      <trkpt lat="42.27452" lon="0.05853">
        <ele>799.3</ele>
        <time>2015-09-24T08:47:37Z</time>
      </trkpt>
      <trkpt lat="42.27449" lon="0.05854">
        <ele>798.7</ele>
        <time>2015-09-24T08:47:38Z</time>
      </trkpt>
      <trkpt lat="42.27445" lon="0.05855">
        <ele>798.1</ele>
        <time>2015-09-24T08:47:39Z</time>
      </trkpt>
      <trkpt lat="42.27441" lon="0.05854">
        <ele>797.7</ele>
        <time>2015-09-24T08:47:40Z</time>
      </trkpt>
      <trkpt lat="42.27438" lon="0.05853">
        <ele>797.3</ele>
        <time>2015-09-24T08:47:41Z</time>
      </trkpt>
      <trkpt lat="42.27434" lon="0.05852">
        <ele>796.9</ele>
        <time>2015-09-24T08:47:42Z</time>
      </trkpt>
      <trkpt lat="42.2743" lon="0.05852">
        <ele>796.3</ele>
        <time>2015-09-24T08:47:44Z</time>
      </trkpt>
      <trkpt lat="42.27426" lon="0.05852">
        <ele>795.9</ele>
        <time>2015-09-24T08:47:46Z</time>
      </trkpt>
      <trkpt lat="42.27422" lon="0.05852">
        <ele>795.3</ele>
        <time>2015-09-24T08:47:48Z</time>
      </trkpt>
      <trkpt lat="42.27417" lon="0.05851">
        <ele>794.7</ele>
        <time>2015-09-24T08:47:50Z</time>
      </trkpt>
      <trkpt lat="42.27414" lon="0.05851">
        <ele>794.3</ele>
        <time>2015-09-24T08:47:52Z</time>
      </trkpt>
      <trkpt lat="42.27417" lon="0.05851">
        <ele>794.6</ele>
        <time>2015-09-24T08:47:55Z</time>
      </trkpt>
      <trkpt lat="42.27413" lon="0.05851">
        <ele>794.2</ele>
        <time>2015-09-24T08:48:22Z</time>
      </trkpt>
      <trkpt lat="42.2741" lon="0.05854">
        <ele>793.4</ele>
        <time>2015-09-24T08:48:24Z</time>
      </trkpt>
      <trkpt lat="42.27406" lon="0.0586">
        <ele>792.5</ele>
        <time>2015-09-24T08:48:26Z</time>
      </trkpt>
      <trkpt lat="42.27404" lon="0.05863">
        <ele>791.9</ele>
        <time>2015-09-24T08:48:27Z</time>
      </trkpt>
      <trkpt lat="42.27402" lon="0.05866">
        <ele>791.3</ele>
        <time>2015-09-24T08:48:28Z</time>
      </trkpt>
      <trkpt lat="42.27399" lon="0.05869">
        <ele>790.7</ele>
        <time>2015-09-24T08:48:29Z</time>
      </trkpt>
      <trkpt lat="42.27397" lon="0.05872">
        <ele>790.2</ele>
        <time>2015-09-24T08:48:30Z</time>
      </trkpt>
      <trkpt lat="42.27394" lon="0.05875">
        <ele>789.6</ele>
        <time>2015-09-24T08:48:31Z</time>
      </trkpt>
      <trkpt lat="42.27392" lon="0.05877">
        <ele>788.8</ele>
        <time>2015-09-24T08:48:32Z</time>
      </trkpt>
      <trkpt lat="42.27389" lon="0.05879">
        <ele>787.9</ele>
        <time>2015-09-24T08:48:33Z</time>
      </trkpt>
      <trkpt lat="42.27384" lon="0.05881">
        <ele>786.6</ele>
        <time>2015-09-24T08:48:35Z</time>
      </trkpt>
      <trkpt lat="42.27381" lon="0.05881">
        <ele>786.2</ele>
        <time>2015-09-24T08:48:36Z</time>
      </trkpt>
      <trkpt lat="42.27378" lon="0.05881">
        <ele>785.9</ele>
        <time>2015-09-24T08:48:37Z</time>
      </trkpt>
      <trkpt lat="42.2737" lon="0.05878">
        <ele>785.3</ele>
        <time>2015-09-24T08:48:38Z</time>
      </trkpt>
      <trkpt lat="42.27365" lon="0.05877">
        <ele>784.6</ele>
        <time>2015-09-24T08:48:39Z</time>
      </trkpt>
      <trkpt lat="42.2736" lon="0.05876">
        <ele>783.9</ele>
        <time>2015-09-24T08:48:40Z</time>
      </trkpt>
      <trkpt lat="42.27356" lon="0.05874">
        <ele>783.4</ele>
        <time>2015-09-24T08:48:41Z</time>
      </trkpt>
      <trkpt lat="42.27352" lon="0.05873">
        <ele>782.8</ele>
        <time>2015-09-24T08:48:42Z</time>
      </trkpt>
      <trkpt lat="42.27348" lon="0.05872">
        <ele>782.1</ele>
        <time>2015-09-24T08:48:43Z</time>
      </trkpt>
      <trkpt lat="42.27345" lon="0.05871">
        <ele>781.5</ele>
        <time>2015-09-24T08:48:44Z</time>
      </trkpt>
      <trkpt lat="42.27342" lon="0.0587">
        <ele>780.9</ele>
        <time>2015-09-24T08:48:45Z</time>
      </trkpt>
      <trkpt lat="42.27339" lon="0.05868">
        <ele>780.4</ele>
        <time>2015-09-24T08:48:46Z</time>
      </trkpt>
      <trkpt lat="42.27335" lon="0.05867">
        <ele>779.9</ele>
        <time>2015-09-24T08:48:47Z</time>
      </trkpt>
      <trkpt lat="42.27332" lon="0.05867">
        <ele>779.2</ele>
        <time>2015-09-24T08:48:48Z</time>
      </trkpt>
      <trkpt lat="42.27328" lon="0.05867">
        <ele>778.3</ele>
        <time>2015-09-24T08:48:49Z</time>
      </trkpt>
      <trkpt lat="42.27324" lon="0.05867">
        <ele>777.5</ele>
        <time>2015-09-24T08:48:50Z</time>
      </trkpt>
      <trkpt lat="42.27319" lon="0.05867">
        <ele>776.7</ele>
        <time>2015-09-24T08:48:51Z</time>
      </trkpt>
      <trkpt lat="42.27315" lon="0.05867">
        <ele>775.9</ele>
        <time>2015-09-24T08:48:52Z</time>
      </trkpt>
      <trkpt lat="42.27312" lon="0.05868">
        <ele>775.2</ele>
        <time>2015-09-24T08:48:53Z</time>
      </trkpt>
      <trkpt lat="42.27308" lon="0.05869">
        <ele>774.4</ele>
        <time>2015-09-24T08:48:54Z</time>
      </trkpt>
      <trkpt lat="42.27306" lon="0.0587">
        <ele>773.9</ele>
        <time>2015-09-24T08:48:55Z</time>
      </trkpt>
      <trkpt lat="42.27302" lon="0.05874">
        <ele>773</ele>
        <time>2015-09-24T08:48:57Z</time>
      </trkpt>
      <trkpt lat="42.27297" lon="0.05876">
        <ele>772</ele>
        <time>2015-09-24T08:48:59Z</time>
      </trkpt>
      <trkpt lat="42.27292" lon="0.05875">
        <ele>771</ele>
        <time>2015-09-24T08:49:01Z</time>
      </trkpt>
      <trkpt lat="42.27287" lon="0.05874">
        <ele>770.1</ele>
        <time>2015-09-24T08:49:03Z</time>
      </trkpt>
      <trkpt lat="42.27284" lon="0.05872">
        <ele>769.5</ele>
        <time>2015-09-24T08:49:05Z</time>
      </trkpt>
      <trkpt lat="42.27281" lon="0.05871">
        <ele>769</ele>
        <time>2015-09-24T08:49:07Z</time>
      </trkpt>
      <trkpt lat="42.27279" lon="0.05872">
        <ele>768.4</ele>
        <time>2015-09-24T08:49:09Z</time>
      </trkpt>
      <trkpt lat="42.27274" lon="0.05874">
        <ele>767.5</ele>
        <time>2015-09-24T08:49:11Z</time>
      </trkpt>
      <trkpt lat="42.27272" lon="0.05875">
        <ele>766.9</ele>
        <time>2015-09-24T08:49:12Z</time>
      </trkpt>
      <trkpt lat="42.27267" lon="0.05876">
        <ele>765.6</ele>
        <time>2015-09-24T08:49:14Z</time>
      </trkpt>
      <trkpt lat="42.27264" lon="0.05877">
        <ele>764.9</ele>
        <time>2015-09-24T08:49:15Z</time>
      </trkpt>
      <trkpt lat="42.27259" lon="0.05878">
        <ele>763.8</ele>
        <time>2015-09-24T08:49:17Z</time>
      </trkpt>
      <trkpt lat="42.27254" lon="0.05877">
        <ele>763.1</ele>
        <time>2015-09-24T08:49:19Z</time>
      </trkpt>
      <trkpt lat="42.2725" lon="0.05875">
        <ele>762.4</ele>
        <time>2015-09-24T08:49:21Z</time>
      </trkpt>
      <trkpt lat="42.27245" lon="0.05874">
        <ele>761.5</ele>
        <time>2015-09-24T08:49:23Z</time>
      </trkpt>
      <trkpt lat="42.27243" lon="0.05872">
        <ele>761.1</ele>
        <time>2015-09-24T08:49:29Z</time>
      </trkpt>
      <trkpt lat="42.2724" lon="0.05871">
        <ele>760.6</ele>
        <time>2015-09-24T08:49:35Z</time>
      </trkpt>
      <trkpt lat="42.27237" lon="0.05871">
        <ele>760</ele>
        <time>2015-09-24T08:49:42Z</time>
      </trkpt>
      <trkpt lat="42.27232" lon="0.0587">
        <ele>759</ele>
        <time>2015-09-24T08:49:50Z</time>
      </trkpt>
      <trkpt lat="42.27227" lon="0.05869">
        <ele>758.2</ele>
        <time>2015-09-24T08:49:52Z</time>
      </trkpt>
      <trkpt lat="42.27223" lon="0.05867">
        <ele>757.4</ele>
        <time>2015-09-24T08:49:54Z</time>
      </trkpt>
      <trkpt lat="42.2722" lon="0.05865">
        <ele>756.9</ele>
        <time>2015-09-24T08:49:56Z</time>
      </trkpt>
      <trkpt lat="42.27217" lon="0.05863">
        <ele>756.4</ele>
        <time>2015-09-24T08:50:02Z</time>
      </trkpt>
      <trkpt lat="42.27214" lon="0.05862">
        <ele>755.8</ele>
        <time>2015-09-24T08:50:06Z</time>
      </trkpt>
      <trkpt lat="42.27211" lon="0.05862">
        <ele>755.2</ele>
        <time>2015-09-24T08:50:11Z</time>
      </trkpt>
      <trkpt lat="42.27208" lon="0.0586">
        <ele>754.6</ele>
        <time>2015-09-24T08:50:13Z</time>
      </trkpt>
      <trkpt lat="42.27205" lon="0.05858">
        <ele>754.1</ele>
        <time>2015-09-24T08:50:14Z</time>
      </trkpt>
      <trkpt lat="42.27203" lon="0.05856">
        <ele>753.7</ele>
        <time>2015-09-24T08:50:15Z</time>
      </trkpt>
      <trkpt lat="42.27199" lon="0.05853">
        <ele>753.1</ele>
        <time>2015-09-24T08:50:17Z</time>
      </trkpt>
      <trkpt lat="42.27196" lon="0.05852">
        <ele>752.5</ele>
        <time>2015-09-24T08:50:19Z</time>
      </trkpt>
      <trkpt lat="42.27193" lon="0.05851">
        <ele>752</ele>
        <time>2015-09-24T08:50:21Z</time>
      </trkpt>
      <trkpt lat="42.27192" lon="0.05855">
        <ele>751.7</ele>
        <time>2015-09-24T08:50:32Z</time>
      </trkpt>
      <trkpt lat="42.27194" lon="0.05859">
        <ele>751.9</ele>
        <time>2015-09-24T08:50:34Z</time>
      </trkpt>
      <trkpt lat="42.27196" lon="0.05863">
        <ele>752</ele>
        <time>2015-09-24T08:50:36Z</time>
      </trkpt>
      <trkpt lat="42.27197" lon="0.05867">
        <ele>752</ele>
        <time>2015-09-24T08:50:37Z</time>
      </trkpt>
      <trkpt lat="42.27198" lon="0.0587">
        <ele>752.1</ele>
        <time>2015-09-24T08:50:38Z</time>
      </trkpt>
      <trkpt lat="42.272" lon="0.05874">
        <ele>752.4</ele>
        <time>2015-09-24T08:50:39Z</time>
      </trkpt>
      <trkpt lat="42.27202" lon="0.05877">
        <ele>752.4</ele>
        <time>2015-09-24T08:50:40Z</time>
      </trkpt>
      <trkpt lat="42.27203" lon="0.0588">
        <ele>752.2</ele>
        <time>2015-09-24T08:50:41Z</time>
      </trkpt>
      <trkpt lat="42.27205" lon="0.05886">
        <ele>751.8</ele>
        <time>2015-09-24T08:50:43Z</time>
      </trkpt>
      <trkpt lat="42.27209" lon="0.05891">
        <ele>751.8</ele>
        <time>2015-09-24T08:50:45Z</time>
      </trkpt>
      <trkpt lat="42.27212" lon="0.05893">
        <ele>751.9</ele>
        <time>2015-09-24T08:50:46Z</time>
      </trkpt>
      <trkpt lat="42.27214" lon="0.05895">
        <ele>752</ele>
        <time>2015-09-24T08:50:47Z</time>
      </trkpt>
      <trkpt lat="42.27216" lon="0.05898">
        <ele>751.9</ele>
        <time>2015-09-24T08:50:48Z</time>
      </trkpt>
      <trkpt lat="42.27218" lon="0.05901">
        <ele>751.8</ele>
        <time>2015-09-24T08:50:49Z</time>
      </trkpt>
      <trkpt lat="42.2722" lon="0.05904">
        <ele>751.9</ele>
        <time>2015-09-24T08:50:50Z</time>
      </trkpt>
      <trkpt lat="42.27222" lon="0.05906">
        <ele>751.8</ele>
        <time>2015-09-24T08:50:51Z</time>
      </trkpt>
      <trkpt lat="42.27224" lon="0.05909">
        <ele>751.7</ele>
        <time>2015-09-24T08:50:52Z</time>
      </trkpt>
      <trkpt lat="42.27225" lon="0.05913">
        <ele>751.3</ele>
        <time>2015-09-24T08:50:53Z</time>
      </trkpt>
      <trkpt lat="42.27226" lon="0.05916">
        <ele>751</ele>
        <time>2015-09-24T08:50:54Z</time>
      </trkpt>
      <trkpt lat="42.27226" lon="0.0592">
        <ele>750.6</ele>
        <time>2015-09-24T08:50:55Z</time>
      </trkpt>
      <trkpt lat="42.27228" lon="0.05925">
        <ele>750</ele>
        <time>2015-09-24T08:50:57Z</time>
      </trkpt>
      <trkpt lat="42.27227" lon="0.05921">
        <ele>750.4</ele>
        <time>2015-09-24T08:50:59Z</time>
      </trkpt>
      <trkpt lat="42.27227" lon="0.05928">
        <ele>749.5</ele>
        <time>2015-09-24T08:52:13Z</time>
      </trkpt>
      <trkpt lat="42.2723" lon="0.05934">
        <ele>749</ele>
        <time>2015-09-24T08:52:15Z</time>
      </trkpt>
      <trkpt lat="42.27233" lon="0.05939">
        <ele>749</ele>
        <time>2015-09-24T08:52:17Z</time>
      </trkpt>
      <trkpt lat="42.27236" lon="0.05943">
        <ele>748.8</ele>
        <time>2015-09-24T08:52:19Z</time>
      </trkpt>
      <trkpt lat="42.27239" lon="0.05946">
        <ele>748.9</ele>
        <time>2015-09-24T08:52:21Z</time>
      </trkpt>
      <trkpt lat="42.27243" lon="0.0595">
        <ele>749.1</ele>
        <time>2015-09-24T08:52:23Z</time>
      </trkpt>
      <trkpt lat="42.27244" lon="0.05953">
        <ele>748.7</ele>
        <time>2015-09-24T08:52:24Z</time>
      </trkpt>
      <trkpt lat="42.27246" lon="0.05958">
        <ele>748.3</ele>
        <time>2015-09-24T08:52:25Z</time>
      </trkpt>
      <trkpt lat="42.27247" lon="0.05962">
        <ele>748.1</ele>
        <time>2015-09-24T08:52:26Z</time>
      </trkpt>
      <trkpt lat="42.27249" lon="0.05966">
        <ele>748</ele>
        <time>2015-09-24T08:52:27Z</time>
      </trkpt>
      <trkpt lat="42.27249" lon="0.0597">
        <ele>747.8</ele>
        <time>2015-09-24T08:52:28Z</time>
      </trkpt>
      <trkpt lat="42.2725" lon="0.05975">
        <ele>747.4</ele>
        <time>2015-09-24T08:52:29Z</time>
      </trkpt>
      <trkpt lat="42.2725" lon="0.05979">
        <ele>747</ele>
        <time>2015-09-24T08:52:30Z</time>
      </trkpt>
      <trkpt lat="42.2725" lon="0.05984">
        <ele>746.5</ele>
        <time>2015-09-24T08:52:31Z</time>
      </trkpt>
      <trkpt lat="42.27248" lon="0.05988">
        <ele>745.9</ele>
        <time>2015-09-24T08:52:32Z</time>
      </trkpt>
      <trkpt lat="42.27247" lon="0.05991">
        <ele>745.4</ele>
        <time>2015-09-24T08:52:33Z</time>
      </trkpt>
      <trkpt lat="42.27245" lon="0.05995">
        <ele>744.8</ele>
        <time>2015-09-24T08:52:34Z</time>
      </trkpt>
      <trkpt lat="42.27243" lon="0.06">
        <ele>744</ele>
        <time>2015-09-24T08:52:36Z</time>
      </trkpt>
      <trkpt lat="42.27242" lon="0.06003">
        <ele>743.7</ele>
        <time>2015-09-24T08:52:38Z</time>
      </trkpt>
      <trkpt lat="42.27244" lon="0.06007">
        <ele>743.5</ele>
        <time>2015-09-24T08:52:40Z</time>
      </trkpt>
      <trkpt lat="42.27245" lon="0.06011">
        <ele>743.4</ele>
        <time>2015-09-24T08:52:42Z</time>
      </trkpt>
      <trkpt lat="42.27246" lon="0.06016">
        <ele>743.1</ele>
        <time>2015-09-24T08:52:44Z</time>
      </trkpt>
      <trkpt lat="42.27245" lon="0.06019">
        <ele>742.6</ele>
        <time>2015-09-24T08:52:50Z</time>
      </trkpt>
      <trkpt lat="42.27244" lon="0.06024">
        <ele>742.1</ele>
        <time>2015-09-24T08:52:56Z</time>
      </trkpt>
      <trkpt lat="42.27243" lon="0.06028">
        <ele>741.7</ele>
        <time>2015-09-24T08:53:00Z</time>
      </trkpt>
      <trkpt lat="42.27244" lon="0.06032">
        <ele>741.4</ele>
        <time>2015-09-24T08:53:04Z</time>
      </trkpt>
      <trkpt lat="42.27246" lon="0.06035">
        <ele>741.4</ele>
        <time>2015-09-24T08:53:08Z</time>
      </trkpt>
      <trkpt lat="42.27249" lon="0.06037">
        <ele>741.4</ele>
        <time>2015-09-24T08:53:12Z</time>
      </trkpt>
      <trkpt lat="42.27252" lon="0.06039">
        <ele>741.4</ele>
        <time>2015-09-24T08:53:16Z</time>
      </trkpt>
      <trkpt lat="42.27254" lon="0.06042">
        <ele>741.3</ele>
        <time>2015-09-24T08:53:20Z</time>
      </trkpt>
      <trkpt lat="42.27257" lon="0.06044">
        <ele>741.9</ele>
        <time>2015-09-24T08:53:25Z</time>
      </trkpt>
      <trkpt lat="42.27259" lon="0.06047">
        <ele>742.4</ele>
        <time>2015-09-24T08:53:30Z</time>
      </trkpt>
      <trkpt lat="42.27258" lon="0.06051">
        <ele>743.1</ele>
        <time>2015-09-24T08:53:34Z</time>
      </trkpt>
      <trkpt lat="42.27257" lon="0.06056">
        <ele>743.8</ele>
        <time>2015-09-24T08:53:38Z</time>
      </trkpt>
      <trkpt lat="42.27257" lon="0.0606">
        <ele>744.5</ele>
        <time>2015-09-24T08:53:42Z</time>
      </trkpt>
      <trkpt lat="42.27255" lon="0.06062">
        <ele>744.8</ele>
        <time>2015-09-24T08:53:47Z</time>
      </trkpt>
      <trkpt lat="42.27251" lon="0.06062">
        <ele>744.7</ele>
        <time>2015-09-24T08:53:51Z</time>
      </trkpt>
      <trkpt lat="42.27248" lon="0.06064">
        <ele>744.9</ele>
        <time>2015-09-24T08:53:55Z</time>
      </trkpt>
      <trkpt lat="42.27246" lon="0.06067">
        <ele>745.6</ele>
        <time>2015-09-24T08:53:59Z</time>
      </trkpt>
      <trkpt lat="42.27245" lon="0.0607">
        <ele>746.1</ele>
        <time>2015-09-24T08:54:03Z</time>
      </trkpt>
      <trkpt lat="42.27243" lon="0.06073">
        <ele>746.7</ele>
        <time>2015-09-24T08:54:07Z</time>
      </trkpt>
      <trkpt lat="42.2724" lon="0.06074">
        <ele>746.9</ele>
        <time>2015-09-24T08:54:11Z</time>
      </trkpt>
      <trkpt lat="42.27237" lon="0.06074">
        <ele>746.9</ele>
        <time>2015-09-24T08:54:16Z</time>
      </trkpt>
      <trkpt lat="42.27234" lon="0.06076">
        <ele>747.4</ele>
        <time>2015-09-24T08:54:20Z</time>
      </trkpt>
      <trkpt lat="42.27231" lon="0.06079">
        <ele>747.9</ele>
        <time>2015-09-24T08:54:24Z</time>
      </trkpt>
      <trkpt lat="42.27228" lon="0.06078">
        <ele>747.9</ele>
        <time>2015-09-24T08:54:28Z</time>
      </trkpt>
      <trkpt lat="42.27225" lon="0.0608">
        <ele>748.3</ele>
        <time>2015-09-24T08:54:32Z</time>
      </trkpt>
      <trkpt lat="42.27222" lon="0.06082">
        <ele>748.8</ele>
        <time>2015-09-24T08:54:36Z</time>
      </trkpt>
      <trkpt lat="42.27221" lon="0.06085">
        <ele>749.7</ele>
        <time>2015-09-24T08:54:40Z</time>
      </trkpt>
      <trkpt lat="42.27221" lon="0.06089">
        <ele>750.6</ele>
        <time>2015-09-24T08:54:44Z</time>
      </trkpt>
      <trkpt lat="42.27221" lon="0.06093">
        <ele>751.6</ele>
        <time>2015-09-24T08:54:48Z</time>
      </trkpt>
      <trkpt lat="42.2722" lon="0.06097">
        <ele>752.5</ele>
        <time>2015-09-24T08:54:52Z</time>
      </trkpt>
      <trkpt lat="42.2722" lon="0.061">
        <ele>753.4</ele>
        <time>2015-09-24T08:54:56Z</time>
      </trkpt>
      <trkpt lat="42.27219" lon="0.06104">
        <ele>754.4</ele>
        <time>2015-09-24T08:55:00Z</time>
      </trkpt>
      <trkpt lat="42.27217" lon="0.06107">
        <ele>755.3</ele>
        <time>2015-09-24T08:55:04Z</time>
      </trkpt>
      <trkpt lat="42.27215" lon="0.06109">
        <ele>756</ele>
        <time>2015-09-24T08:55:08Z</time>
      </trkpt>
      <trkpt lat="42.27215" lon="0.06113">
        <ele>757</ele>
        <time>2015-09-24T08:55:12Z</time>
      </trkpt>
      <trkpt lat="42.27216" lon="0.06116">
        <ele>757.8</ele>
        <time>2015-09-24T08:55:16Z</time>
      </trkpt>
      <trkpt lat="42.27213" lon="0.06118">
        <ele>758.6</ele>
        <time>2015-09-24T08:55:20Z</time>
      </trkpt>
      <trkpt lat="42.2721" lon="0.06119">
        <ele>759.3</ele>
        <time>2015-09-24T08:55:25Z</time>
      </trkpt>
      <trkpt lat="42.27208" lon="0.06123">
        <ele>760.5</ele>
        <time>2015-09-24T08:55:30Z</time>
      </trkpt>
      <trkpt lat="42.27206" lon="0.06126">
        <ele>762.3</ele>
        <time>2015-09-24T08:55:34Z</time>
      </trkpt>
      <trkpt lat="42.27204" lon="0.06129">
        <ele>764.4</ele>
        <time>2015-09-24T08:55:38Z</time>
      </trkpt>
      <trkpt lat="42.27201" lon="0.06131">
        <ele>766.1</ele>
        <time>2015-09-24T08:55:41Z</time>
      </trkpt>
      <trkpt lat="42.27198" lon="0.06132">
        <ele>767.9</ele>
        <time>2015-09-24T08:55:44Z</time>
      </trkpt>
      <trkpt lat="42.27195" lon="0.06132">
        <ele>768.8</ele>
        <time>2015-09-24T08:55:47Z</time>
      </trkpt>
      <trkpt lat="42.27192" lon="0.06131">
        <ele>769.9</ele>
        <time>2015-09-24T08:55:51Z</time>
      </trkpt>
      <trkpt lat="42.27189" lon="0.06131">
        <ele>771.2</ele>
        <time>2015-09-24T08:55:55Z</time>
      </trkpt>
      <trkpt lat="42.27186" lon="0.06131">
        <ele>772.6</ele>
        <time>2015-09-24T08:55:59Z</time>
      </trkpt>
      <trkpt lat="42.27183" lon="0.06131">
        <ele>773.9</ele>
        <time>2015-09-24T08:56:04Z</time>
      </trkpt>
      <trkpt lat="42.2718" lon="0.06129">
        <ele>774.4</ele>
        <time>2015-09-24T08:56:09Z</time>
      </trkpt>
      <trkpt lat="42.27178" lon="0.06128">
        <ele>774.9</ele>
        <time>2015-09-24T08:56:14Z</time>
      </trkpt>
      <trkpt lat="42.27176" lon="0.06125">
        <ele>775.2</ele>
        <time>2015-09-24T08:56:19Z</time>
      </trkpt>
      <trkpt lat="42.27173" lon="0.06124">
        <ele>775.6</ele>
        <time>2015-09-24T08:56:23Z</time>
      </trkpt>
      <trkpt lat="42.2717" lon="0.06123">
        <ele>776.8</ele>
        <time>2015-09-24T08:56:28Z</time>
      </trkpt>
      <trkpt lat="42.27167" lon="0.06122">
        <ele>777.7</ele>
        <time>2015-09-24T08:56:33Z</time>
      </trkpt>
      <trkpt lat="42.27164" lon="0.0612">
        <ele>777.8</ele>
        <time>2015-09-24T08:56:38Z</time>
      </trkpt>
      <trkpt lat="42.27162" lon="0.06118">
        <ele>778</ele>
        <time>2015-09-24T08:56:42Z</time>
      </trkpt>
      <trkpt lat="42.27159" lon="0.06116">
        <ele>778.3</ele>
        <time>2015-09-24T08:56:46Z</time>
      </trkpt>
      <trkpt lat="42.27157" lon="0.06113">
        <ele>778.3</ele>
        <time>2015-09-24T08:56:54Z</time>
      </trkpt>
      <trkpt lat="42.27154" lon="0.06112">
        <ele>778.6</ele>
        <time>2015-09-24T08:56:59Z</time>
      </trkpt>
      <trkpt lat="42.27152" lon="0.0611">
        <ele>778.5</ele>
        <time>2015-09-24T08:57:03Z</time>
      </trkpt>
      <trkpt lat="42.27149" lon="0.06108">
        <ele>779</ele>
        <time>2015-09-24T08:57:07Z</time>
      </trkpt>
      <trkpt lat="42.27146" lon="0.06107">
        <ele>779.5</ele>
        <time>2015-09-24T08:57:12Z</time>
      </trkpt>
      <trkpt lat="42.27144" lon="0.06104">
        <ele>778.7</ele>
        <time>2015-09-24T08:57:17Z</time>
      </trkpt>
      <trkpt lat="42.27142" lon="0.06101">
        <ele>778.4</ele>
        <time>2015-09-24T08:57:21Z</time>
      </trkpt>
      <trkpt lat="42.27139" lon="0.06102">
        <ele>779.8</ele>
        <time>2015-09-24T08:57:25Z</time>
      </trkpt>
      <trkpt lat="42.27136" lon="0.061">
        <ele>780</ele>
        <time>2015-09-24T08:57:30Z</time>
      </trkpt>
      <trkpt lat="42.27133" lon="0.06099">
        <ele>780.5</ele>
        <time>2015-09-24T08:57:34Z</time>
      </trkpt>
      <trkpt lat="42.2713" lon="0.06099">
        <ele>781.6</ele>
        <time>2015-09-24T08:57:39Z</time>
      </trkpt>
      <trkpt lat="42.27127" lon="0.06099">
        <ele>782.8</ele>
        <time>2015-09-24T08:57:45Z</time>
      </trkpt>
      <trkpt lat="42.27124" lon="0.06097">
        <ele>782.3</ele>
        <time>2015-09-24T08:57:49Z</time>
      </trkpt>
      <trkpt lat="42.27121" lon="0.06096">
        <ele>781.6</ele>
        <time>2015-09-24T08:57:53Z</time>
      </trkpt>
      <trkpt lat="42.27118" lon="0.06096">
        <ele>781.3</ele>
        <time>2015-09-24T08:57:58Z</time>
      </trkpt>
      <trkpt lat="42.27115" lon="0.06094">
        <ele>780.5</ele>
        <time>2015-09-24T08:58:02Z</time>
      </trkpt>
      <trkpt lat="42.27113" lon="0.06093">
        <ele>780</ele>
        <time>2015-09-24T08:58:09Z</time>
      </trkpt>
      <trkpt lat="42.27109" lon="0.06092">
        <ele>779.6</ele>
        <time>2015-09-24T08:58:11Z</time>
      </trkpt>
      <trkpt lat="42.27107" lon="0.06091">
        <ele>778.9</ele>
        <time>2015-09-24T08:58:13Z</time>
      </trkpt>
      <trkpt lat="42.27104" lon="0.06089">
        <ele>777.9</ele>
        <time>2015-09-24T08:58:15Z</time>
      </trkpt>
      <trkpt lat="42.27102" lon="0.06087">
        <ele>776.7</ele>
        <time>2015-09-24T08:58:17Z</time>
      </trkpt>
      <trkpt lat="42.271" lon="0.06084">
        <ele>775.4</ele>
        <time>2015-09-24T08:58:19Z</time>
      </trkpt>
      <trkpt lat="42.27098" lon="0.06081">
        <ele>774.2</ele>
        <time>2015-09-24T08:58:21Z</time>
      </trkpt>
      <trkpt lat="42.27096" lon="0.06079">
        <ele>773</ele>
        <time>2015-09-24T08:58:23Z</time>
      </trkpt>
      <trkpt lat="42.27093" lon="0.06077">
        <ele>772.1</ele>
        <time>2015-09-24T08:58:25Z</time>
      </trkpt>
      <trkpt lat="42.2709" lon="0.06076">
        <ele>771.8</ele>
        <time>2015-09-24T08:58:27Z</time>
      </trkpt>
      <trkpt lat="42.27087" lon="0.06075">
        <ele>771.4</ele>
        <time>2015-09-24T08:58:29Z</time>
      </trkpt>
      <trkpt lat="42.27084" lon="0.06071">
        <ele>770</ele>
        <time>2015-09-24T08:58:32Z</time>
      </trkpt>
      <trkpt lat="42.27082" lon="0.06069">
        <ele>768.8</ele>
        <time>2015-09-24T08:58:34Z</time>
      </trkpt>
      <trkpt lat="42.27079" lon="0.06064">
        <ele>767</ele>
        <time>2015-09-24T08:58:36Z</time>
      </trkpt>
      <trkpt lat="42.27075" lon="0.06059">
        <ele>765.2</ele>
        <time>2015-09-24T08:58:38Z</time>
      </trkpt>
      <trkpt lat="42.27072" lon="0.06055">
        <ele>763.7</ele>
        <time>2015-09-24T08:58:40Z</time>
      </trkpt>
      <trkpt lat="42.27069" lon="0.06053">
        <ele>763</ele>
        <time>2015-09-24T08:58:47Z</time>
      </trkpt>
      <trkpt lat="42.27066" lon="0.06051">
        <ele>762.2</ele>
        <time>2015-09-24T08:58:48Z</time>
      </trkpt>
      <trkpt lat="42.27064" lon="0.06048">
        <ele>761.3</ele>
        <time>2015-09-24T08:58:49Z</time>
      </trkpt>
      <trkpt lat="42.27061" lon="0.06045">
        <ele>760.4</ele>
        <time>2015-09-24T08:58:50Z</time>
      </trkpt>
      <trkpt lat="42.27058" lon="0.06042">
        <ele>759.4</ele>
        <time>2015-09-24T08:58:51Z</time>
      </trkpt>
      <trkpt lat="42.27054" lon="0.06039">
        <ele>758.9</ele>
        <time>2015-09-24T08:58:52Z</time>
      </trkpt>
      <trkpt lat="42.27051" lon="0.06036">
        <ele>758.3</ele>
        <time>2015-09-24T08:58:53Z</time>
      </trkpt>
      <trkpt lat="42.27048" lon="0.06034">
        <ele>757.8</ele>
        <time>2015-09-24T08:58:54Z</time>
      </trkpt>
      <trkpt lat="42.27045" lon="0.06031">
        <ele>757.4</ele>
        <time>2015-09-24T08:58:55Z</time>
      </trkpt>
      <trkpt lat="42.27041" lon="0.0603">
        <ele>757.3</ele>
        <time>2015-09-24T08:58:56Z</time>
      </trkpt>
      <trkpt lat="42.27037" lon="0.0603">
        <ele>757.3</ele>
        <time>2015-09-24T08:58:57Z</time>
      </trkpt>
      <trkpt lat="42.27034" lon="0.06029">
        <ele>757.4</ele>
        <time>2015-09-24T08:58:58Z</time>
      </trkpt>
      <trkpt lat="42.27029" lon="0.0603">
        <ele>757.8</ele>
        <time>2015-09-24T08:58:59Z</time>
      </trkpt>
      <trkpt lat="42.27025" lon="0.06032">
        <ele>758.5</ele>
        <time>2015-09-24T08:59:00Z</time>
      </trkpt>
      <trkpt lat="42.27022" lon="0.06034">
        <ele>759.5</ele>
        <time>2015-09-24T08:59:01Z</time>
      </trkpt>
      <trkpt lat="42.27018" lon="0.06037">
        <ele>760.5</ele>
        <time>2015-09-24T08:59:02Z</time>
      </trkpt>
      <trkpt lat="42.27014" lon="0.06039">
        <ele>761.4</ele>
        <time>2015-09-24T08:59:03Z</time>
      </trkpt>
      <trkpt lat="42.27011" lon="0.06041">
        <ele>762.2</ele>
        <time>2015-09-24T08:59:04Z</time>
      </trkpt>
      <trkpt lat="42.27009" lon="0.06044">
        <ele>763.2</ele>
        <time>2015-09-24T08:59:09Z</time>
      </trkpt>
      <trkpt lat="42.27006" lon="0.06046">
        <ele>764</ele>
        <time>2015-09-24T08:59:14Z</time>
      </trkpt>
      <trkpt lat="42.27004" lon="0.06048">
        <ele>764.9</ele>
        <time>2015-09-24T08:59:15Z</time>
      </trkpt>
      <trkpt lat="42.27002" lon="0.06051">
        <ele>765.9</ele>
        <time>2015-09-24T08:59:16Z</time>
      </trkpt>
      <trkpt lat="42.27" lon="0.06055">
        <ele>766.9</ele>
        <time>2015-09-24T08:59:17Z</time>
      </trkpt>
      <trkpt lat="42.26998" lon="0.06058">
        <ele>767.9</ele>
        <time>2015-09-24T08:59:18Z</time>
      </trkpt>
      <trkpt lat="42.26996" lon="0.0606">
        <ele>768.7</ele>
        <time>2015-09-24T08:59:19Z</time>
      </trkpt>
      <trkpt lat="42.26994" lon="0.06062">
        <ele>769.3</ele>
        <time>2015-09-24T08:59:20Z</time>
      </trkpt>
      <trkpt lat="42.26991" lon="0.06063">
        <ele>769.7</ele>
        <time>2015-09-24T08:59:21Z</time>
      </trkpt>
      <trkpt lat="42.26988" lon="0.06063">
        <ele>769.7</ele>
        <time>2015-09-24T08:59:22Z</time>
      </trkpt>
      <trkpt lat="42.26986" lon="0.06062">
        <ele>769.6</ele>
        <time>2015-09-24T08:59:23Z</time>
      </trkpt>
      <trkpt lat="42.26981" lon="0.06062">
        <ele>769.6</ele>
        <time>2015-09-24T08:59:25Z</time>
      </trkpt>
      <trkpt lat="42.26978" lon="0.06066">
        <ele>770.7</ele>
        <time>2015-09-24T08:59:27Z</time>
      </trkpt>
      <trkpt lat="42.26975" lon="0.06072">
        <ele>772.3</ele>
        <time>2015-09-24T08:59:29Z</time>
      </trkpt>
      <trkpt lat="42.26973" lon="0.06075">
        <ele>773.3</ele>
        <time>2015-09-24T08:59:30Z</time>
      </trkpt>
      <trkpt lat="42.26971" lon="0.06079">
        <ele>774.2</ele>
        <time>2015-09-24T08:59:31Z</time>
      </trkpt>
      <trkpt lat="42.26968" lon="0.06081">
        <ele>775</ele>
        <time>2015-09-24T08:59:32Z</time>
      </trkpt>
      <trkpt lat="42.26965" lon="0.06084">
        <ele>775.5</ele>
        <time>2015-09-24T08:59:33Z</time>
      </trkpt>
      <trkpt lat="42.26962" lon="0.06085">
        <ele>776</ele>
        <time>2015-09-24T08:59:34Z</time>
      </trkpt>
      <trkpt lat="42.26959" lon="0.06086">
        <ele>776.2</ele>
        <time>2015-09-24T08:59:35Z</time>
      </trkpt>
      <trkpt lat="42.26956" lon="0.06087">
        <ele>776.7</ele>
        <time>2015-09-24T08:59:36Z</time>
      </trkpt>
      <trkpt lat="42.26952" lon="0.06086">
        <ele>776.7</ele>
        <time>2015-09-24T08:59:38Z</time>
      </trkpt>
      <trkpt lat="42.2695" lon="0.0608">
        <ele>775.6</ele>
        <time>2015-09-24T08:59:40Z</time>
      </trkpt>
      <trkpt lat="42.26947" lon="0.06075">
        <ele>774.7</ele>
        <time>2015-09-24T08:59:42Z</time>
      </trkpt>
      <trkpt lat="42.26943" lon="0.06071">
        <ele>774.1</ele>
        <time>2015-09-24T08:59:44Z</time>
      </trkpt>
      <trkpt lat="42.26939" lon="0.06066">
        <ele>773.3</ele>
        <time>2015-09-24T08:59:46Z</time>
      </trkpt>
      <trkpt lat="42.26935" lon="0.06061">
        <ele>772.6</ele>
        <time>2015-09-24T08:59:48Z</time>
      </trkpt>
      <trkpt lat="42.26931" lon="0.06057">
        <ele>772.1</ele>
        <time>2015-09-24T08:59:50Z</time>
      </trkpt>
      <trkpt lat="42.26927" lon="0.06055">
        <ele>772</ele>
        <time>2015-09-24T08:59:52Z</time>
      </trkpt>
      <trkpt lat="42.26924" lon="0.06053">
        <ele>771.8</ele>
        <time>2015-09-24T08:59:54Z</time>
      </trkpt>
      <trkpt lat="42.26922" lon="0.06049">
        <ele>771.3</ele>
        <time>2015-09-24T08:59:56Z</time>
      </trkpt>
      <trkpt lat="42.26918" lon="0.06047">
        <ele>771.1</ele>
        <time>2015-09-24T08:59:58Z</time>
      </trkpt>
      <trkpt lat="42.26914" lon="0.06046">
        <ele>771.4</ele>
        <time>2015-09-24T09:00:00Z</time>
      </trkpt>
      <trkpt lat="42.26909" lon="0.06047">
        <ele>772.2</ele>
        <time>2015-09-24T09:00:02Z</time>
      </trkpt>
      <trkpt lat="42.26905" lon="0.0605">
        <ele>773.4</ele>
        <time>2015-09-24T09:00:04Z</time>
      </trkpt>
      <trkpt lat="42.26902" lon="0.06053">
        <ele>774.4</ele>
        <time>2015-09-24T09:00:06Z</time>
      </trkpt>
      <trkpt lat="42.269" lon="0.06055">
        <ele>775.3</ele>
        <time>2015-09-24T09:00:09Z</time>
      </trkpt>
      <trkpt lat="42.26898" lon="0.06059">
        <ele>776.2</ele>
        <time>2015-09-24T09:00:11Z</time>
      </trkpt>
      <trkpt lat="42.26895" lon="0.06064">
        <ele>777.8</ele>
        <time>2015-09-24T09:00:13Z</time>
      </trkpt>
      <trkpt lat="42.26891" lon="0.06068">
        <ele>779.3</ele>
        <time>2015-09-24T09:00:15Z</time>
      </trkpt>
      <trkpt lat="42.26887" lon="0.06072">
        <ele>780.7</ele>
        <time>2015-09-24T09:00:17Z</time>
      </trkpt>
      <trkpt lat="42.26882" lon="0.06075">
        <ele>781.8</ele>
        <time>2015-09-24T09:00:19Z</time>
      </trkpt>
      <trkpt lat="42.26879" lon="0.06076">
        <ele>782.3</ele>
        <time>2015-09-24T09:00:20Z</time>
      </trkpt>
      <trkpt lat="42.26876" lon="0.06078">
        <ele>783.2</ele>
        <time>2015-09-24T09:00:21Z</time>
      </trkpt>
      <trkpt lat="42.26873" lon="0.06081">
        <ele>784.4</ele>
        <time>2015-09-24T09:00:22Z</time>
      </trkpt>
      <trkpt lat="42.2687" lon="0.06084">
        <ele>785.7</ele>
        <time>2015-09-24T09:00:23Z</time>
      </trkpt>
      <trkpt lat="42.26866" lon="0.06086">
        <ele>786.8</ele>
        <time>2015-09-24T09:00:24Z</time>
      </trkpt>
      <trkpt lat="42.26863" lon="0.06086">
        <ele>787.7</ele>
        <time>2015-09-24T09:00:25Z</time>
      </trkpt>
      <trkpt lat="42.26859" lon="0.06086">
        <ele>788.2</ele>
        <time>2015-09-24T09:00:26Z</time>
      </trkpt>
      <trkpt lat="42.26856" lon="0.06081">
        <ele>787.8</ele>
        <time>2015-09-24T09:00:28Z</time>
      </trkpt>
      <trkpt lat="42.26853" lon="0.06075">
        <ele>787</ele>
        <time>2015-09-24T09:00:30Z</time>
      </trkpt>
      <trkpt lat="42.26851" lon="0.06068">
        <ele>785.9</ele>
        <time>2015-09-24T09:00:32Z</time>
      </trkpt>
      <trkpt lat="42.26849" lon="0.06063">
        <ele>785.2</ele>
        <time>2015-09-24T09:00:34Z</time>
      </trkpt>
      <trkpt lat="42.26847" lon="0.06061">
        <ele>785.2</ele>
        <time>2015-09-24T09:00:36Z</time>
      </trkpt>
      <trkpt lat="42.26844" lon="0.06062">
        <ele>785.9</ele>
        <time>2015-09-24T09:00:38Z</time>
      </trkpt>
      <trkpt lat="42.26841" lon="0.06064">
        <ele>787</ele>
        <time>2015-09-24T09:00:40Z</time>
      </trkpt>
      <trkpt lat="42.26838" lon="0.06064">
        <ele>787.7</ele>
        <time>2015-09-24T09:00:42Z</time>
      </trkpt>
      <trkpt lat="42.26834" lon="0.06062">
        <ele>788</ele>
        <time>2015-09-24T09:00:44Z</time>
      </trkpt>
      <trkpt lat="42.26832" lon="0.06061">
        <ele>788.3</ele>
        <time>2015-09-24T09:00:46Z</time>
      </trkpt>
      <trkpt lat="42.26829" lon="0.06058">
        <ele>788.2</ele>
        <time>2015-09-24T09:00:48Z</time>
      </trkpt>
      <trkpt lat="42.26826" lon="0.06056">
        <ele>788.4</ele>
        <time>2015-09-24T09:00:50Z</time>
      </trkpt>
      <trkpt lat="42.26823" lon="0.06056">
        <ele>788.9</ele>
        <time>2015-09-24T09:00:52Z</time>
      </trkpt>
      <trkpt lat="42.2682" lon="0.06055">
        <ele>789.3</ele>
        <time>2015-09-24T09:00:54Z</time>
      </trkpt>
      <trkpt lat="42.26816" lon="0.06054">
        <ele>789.8</ele>
        <time>2015-09-24T09:00:56Z</time>
      </trkpt>
      <trkpt lat="42.26814" lon="0.06054">
        <ele>790.3</ele>
        <time>2015-09-24T09:00:58Z</time>
      </trkpt>
      <trkpt lat="42.26811" lon="0.06052">
        <ele>790.3</ele>
        <time>2015-09-24T09:01:00Z</time>
      </trkpt>
      <trkpt lat="42.26808" lon="0.06051">
        <ele>790.7</ele>
        <time>2015-09-24T09:01:03Z</time>
      </trkpt>
      <trkpt lat="42.26804" lon="0.06052">
        <ele>791.9</ele>
        <time>2015-09-24T09:01:06Z</time>
      </trkpt>
      <trkpt lat="42.26801" lon="0.06054">
        <ele>792.8</ele>
        <time>2015-09-24T09:01:08Z</time>
      </trkpt>
      <trkpt lat="42.26798" lon="0.06054">
        <ele>793.6</ele>
        <time>2015-09-24T09:01:10Z</time>
      </trkpt>
      <trkpt lat="42.26795" lon="0.06054">
        <ele>794.2</ele>
        <time>2015-09-24T09:01:12Z</time>
      </trkpt>
      <trkpt lat="42.26791" lon="0.06054">
        <ele>794.8</ele>
        <time>2015-09-24T09:01:14Z</time>
      </trkpt>
      <trkpt lat="42.26788" lon="0.06054">
        <ele>795.6</ele>
        <time>2015-09-24T09:01:16Z</time>
      </trkpt>
      <trkpt lat="42.26785" lon="0.06053">
        <ele>796.2</ele>
        <time>2015-09-24T09:01:18Z</time>
      </trkpt>
      <trkpt lat="42.26781" lon="0.06052">
        <ele>796.7</ele>
        <time>2015-09-24T09:01:20Z</time>
      </trkpt>
      <trkpt lat="42.26777" lon="0.06052">
        <ele>797.4</ele>
        <time>2015-09-24T09:01:22Z</time>
      </trkpt>
      <trkpt lat="42.26774" lon="0.06052">
        <ele>798.4</ele>
        <time>2015-09-24T09:01:24Z</time>
      </trkpt>
      <trkpt lat="42.2677" lon="0.06052">
        <ele>799.2</ele>
        <time>2015-09-24T09:01:26Z</time>
      </trkpt>
      <trkpt lat="42.26767" lon="0.0605">
        <ele>799.3</ele>
        <time>2015-09-24T09:01:28Z</time>
      </trkpt>
      <trkpt lat="42.26763" lon="0.06048">
        <ele>799.6</ele>
        <time>2015-09-24T09:01:30Z</time>
      </trkpt>
      <trkpt lat="42.26759" lon="0.06047">
        <ele>800.3</ele>
        <time>2015-09-24T09:01:32Z</time>
      </trkpt>
      <trkpt lat="42.26756" lon="0.06048">
        <ele>801.2</ele>
        <time>2015-09-24T09:01:34Z</time>
      </trkpt>
      <trkpt lat="42.26752" lon="0.06046">
        <ele>801.7</ele>
        <time>2015-09-24T09:01:36Z</time>
      </trkpt>
      <trkpt lat="42.26749" lon="0.06043">
        <ele>801.5</ele>
        <time>2015-09-24T09:01:38Z</time>
      </trkpt>
      <trkpt lat="42.26745" lon="0.06039">
        <ele>801.4</ele>
        <time>2015-09-24T09:01:40Z</time>
      </trkpt>
      <trkpt lat="42.26743" lon="0.06037">
        <ele>801.4</ele>
        <time>2015-09-24T09:01:41Z</time>
      </trkpt>
      <trkpt lat="42.2674" lon="0.06034">
        <ele>801.3</ele>
        <time>2015-09-24T09:01:42Z</time>
      </trkpt>
      <trkpt lat="42.26738" lon="0.06032">
        <ele>801.2</ele>
        <time>2015-09-24T09:01:43Z</time>
      </trkpt>
      <trkpt lat="42.26736" lon="0.0603">
        <ele>801.1</ele>
        <time>2015-09-24T09:01:44Z</time>
      </trkpt>
      <trkpt lat="42.26732" lon="0.06026">
        <ele>801</ele>
        <time>2015-09-24T09:01:46Z</time>
      </trkpt>
      <trkpt lat="42.26728" lon="0.06023">
        <ele>801.1</ele>
        <time>2015-09-24T09:01:48Z</time>
      </trkpt>
      <trkpt lat="42.26725" lon="0.0602">
        <ele>801.1</ele>
        <time>2015-09-24T09:01:50Z</time>
      </trkpt>
      <trkpt lat="42.26721" lon="0.06017">
        <ele>801.1</ele>
        <time>2015-09-24T09:01:52Z</time>
      </trkpt>
      <trkpt lat="42.26717" lon="0.06015">
        <ele>801.2</ele>
        <time>2015-09-24T09:01:54Z</time>
      </trkpt>
      <trkpt lat="42.26713" lon="0.06012">
        <ele>801.2</ele>
        <time>2015-09-24T09:01:56Z</time>
      </trkpt>
      <trkpt lat="42.26709" lon="0.06009">
        <ele>801.2</ele>
        <time>2015-09-24T09:01:58Z</time>
      </trkpt>
      <trkpt lat="42.26704" lon="0.06007">
        <ele>801.7</ele>
        <time>2015-09-24T09:02:00Z</time>
      </trkpt>
      <trkpt lat="42.267" lon="0.06006">
        <ele>802.3</ele>
        <time>2015-09-24T09:02:02Z</time>
      </trkpt>
      <trkpt lat="42.26696" lon="0.06005">
        <ele>803</ele>
        <time>2015-09-24T09:02:04Z</time>
      </trkpt>
      <trkpt lat="42.26692" lon="0.06004">
        <ele>803.4</ele>
        <time>2015-09-24T09:02:06Z</time>
      </trkpt>
      <trkpt lat="42.26688" lon="0.06001">
        <ele>803.5</ele>
        <time>2015-09-24T09:02:08Z</time>
      </trkpt>
      <trkpt lat="42.26684" lon="0.06">
        <ele>803.9</ele>
        <time>2015-09-24T09:02:10Z</time>
      </trkpt>
      <trkpt lat="42.2668" lon="0.05999">
        <ele>804.4</ele>
        <time>2015-09-24T09:02:12Z</time>
      </trkpt>
      <trkpt lat="42.26677" lon="0.05999">
        <ele>805.1</ele>
        <time>2015-09-24T09:02:14Z</time>
      </trkpt>
      <trkpt lat="42.26673" lon="0.06">
        <ele>806.3</ele>
        <time>2015-09-24T09:02:16Z</time>
      </trkpt>
      <trkpt lat="42.26669" lon="0.06002">
        <ele>807.4</ele>
        <time>2015-09-24T09:02:18Z</time>
      </trkpt>
      <trkpt lat="42.26666" lon="0.06001">
        <ele>808</ele>
        <time>2015-09-24T09:02:20Z</time>
      </trkpt>
      <trkpt lat="42.26663" lon="0.06001">
        <ele>808.5</ele>
        <time>2015-09-24T09:02:22Z</time>
      </trkpt>
      <trkpt lat="42.2666" lon="0.06001">
        <ele>809.2</ele>
        <time>2015-09-24T09:02:24Z</time>
      </trkpt>
      <trkpt lat="42.26657" lon="0.06001">
        <ele>809.6</ele>
        <time>2015-09-24T09:02:26Z</time>
      </trkpt>
      <trkpt lat="42.26654" lon="0.05999">
        <ele>809.8</ele>
        <time>2015-09-24T09:02:28Z</time>
      </trkpt>
      <trkpt lat="42.26651" lon="0.05998">
        <ele>810.1</ele>
        <time>2015-09-24T09:02:30Z</time>
      </trkpt>
      <trkpt lat="42.26648" lon="0.05997">
        <ele>810.4</ele>
        <time>2015-09-24T09:02:32Z</time>
      </trkpt>
      <trkpt lat="42.26643" lon="0.05995">
        <ele>810.7</ele>
        <time>2015-09-24T09:02:34Z</time>
      </trkpt>
      <trkpt lat="42.26639" lon="0.05992">
        <ele>810.8</ele>
        <time>2015-09-24T09:02:36Z</time>
      </trkpt>
      <trkpt lat="42.26635" lon="0.05989">
        <ele>810.8</ele>
        <time>2015-09-24T09:02:38Z</time>
      </trkpt>
      <trkpt lat="42.26632" lon="0.05987">
        <ele>810.8</ele>
        <time>2015-09-24T09:02:39Z</time>
      </trkpt>
      <trkpt lat="42.26629" lon="0.05985">
        <ele>810.9</ele>
        <time>2015-09-24T09:02:40Z</time>
      </trkpt>
      <trkpt lat="42.26626" lon="0.05983">
        <ele>811</ele>
        <time>2015-09-24T09:02:41Z</time>
      </trkpt>
      <trkpt lat="42.26623" lon="0.05982">
        <ele>811.2</ele>
        <time>2015-09-24T09:02:42Z</time>
      </trkpt>
      <trkpt lat="42.26619" lon="0.0598">
        <ele>811.8</ele>
        <time>2015-09-24T09:02:43Z</time>
      </trkpt>
      <trkpt lat="42.26616" lon="0.0598">
        <ele>812.5</ele>
        <time>2015-09-24T09:02:44Z</time>
      </trkpt>
      <trkpt lat="42.26612" lon="0.05979">
        <ele>813.2</ele>
        <time>2015-09-24T09:02:45Z</time>
      </trkpt>
      <trkpt lat="42.26609" lon="0.05979">
        <ele>813.9</ele>
        <time>2015-09-24T09:02:46Z</time>
      </trkpt>
      <trkpt lat="42.26605" lon="0.05977">
        <ele>814.5</ele>
        <time>2015-09-24T09:02:47Z</time>
      </trkpt>
      <trkpt lat="42.26601" lon="0.05976">
        <ele>814.9</ele>
        <time>2015-09-24T09:02:48Z</time>
      </trkpt>
      <trkpt lat="42.26598" lon="0.05974">
        <ele>815.3</ele>
        <time>2015-09-24T09:02:49Z</time>
      </trkpt>
      <trkpt lat="42.26595" lon="0.05972">
        <ele>815.7</ele>
        <time>2015-09-24T09:02:50Z</time>
      </trkpt>
      <trkpt lat="42.26591" lon="0.05971">
        <ele>816.5</ele>
        <time>2015-09-24T09:02:52Z</time>
      </trkpt>
      <trkpt lat="42.26587" lon="0.05969">
        <ele>817.2</ele>
        <time>2015-09-24T09:02:54Z</time>
      </trkpt>
      <trkpt lat="42.26583" lon="0.05966">
        <ele>817.7</ele>
        <time>2015-09-24T09:02:56Z</time>
      </trkpt>
      <trkpt lat="42.26579" lon="0.05963">
        <ele>818.2</ele>
        <time>2015-09-24T09:02:58Z</time>
      </trkpt>
      <trkpt lat="42.26575" lon="0.05961">
        <ele>818.9</ele>
        <time>2015-09-24T09:03:00Z</time>
      </trkpt>
      <trkpt lat="42.26571" lon="0.05958">
        <ele>819.5</ele>
        <time>2015-09-24T09:03:02Z</time>
      </trkpt>
      <trkpt lat="42.26567" lon="0.05955">
        <ele>819.9</ele>
        <time>2015-09-24T09:03:04Z</time>
      </trkpt>
      <trkpt lat="42.26564" lon="0.05952">
        <ele>820.1</ele>
        <time>2015-09-24T09:03:06Z</time>
      </trkpt>
      <trkpt lat="42.26561" lon="0.0595">
        <ele>820.6</ele>
        <time>2015-09-24T09:03:08Z</time>
      </trkpt>
      <trkpt lat="42.26558" lon="0.05949">
        <ele>821.1</ele>
        <time>2015-09-24T09:03:10Z</time>
      </trkpt>
      <trkpt lat="42.26555" lon="0.05947">
        <ele>821.4</ele>
        <time>2015-09-24T09:03:12Z</time>
      </trkpt>
      <trkpt lat="42.26552" lon="0.05945">
        <ele>821.6</ele>
        <time>2015-09-24T09:03:14Z</time>
      </trkpt>
      <trkpt lat="42.2655" lon="0.05943">
        <ele>821.9</ele>
        <time>2015-09-24T09:03:16Z</time>
      </trkpt>
      <trkpt lat="42.26547" lon="0.0594">
        <ele>822.1</ele>
        <time>2015-09-24T09:03:18Z</time>
      </trkpt>
      <trkpt lat="42.26545" lon="0.05938">
        <ele>822.3</ele>
        <time>2015-09-24T09:03:20Z</time>
      </trkpt>
      <trkpt lat="42.26542" lon="0.05935">
        <ele>822.3</ele>
        <time>2015-09-24T09:03:22Z</time>
      </trkpt>
      <trkpt lat="42.2654" lon="0.05932">
        <ele>821.9</ele>
        <time>2015-09-24T09:03:24Z</time>
      </trkpt>
      <trkpt lat="42.26538" lon="0.0593">
        <ele>821.4</ele>
        <time>2015-09-24T09:03:26Z</time>
      </trkpt>
      <trkpt lat="42.26536" lon="0.05928">
        <ele>821.1</ele>
        <time>2015-09-24T09:03:28Z</time>
      </trkpt>
      <trkpt lat="42.26534" lon="0.05926">
        <ele>820.8</ele>
        <time>2015-09-24T09:03:30Z</time>
      </trkpt>
      <trkpt lat="42.26531" lon="0.05923">
        <ele>820.6</ele>
        <time>2015-09-24T09:03:32Z</time>
      </trkpt>
      <trkpt lat="42.26528" lon="0.05921">
        <ele>820.4</ele>
        <time>2015-09-24T09:03:34Z</time>
      </trkpt>
      <trkpt lat="42.26525" lon="0.05919">
        <ele>820.2</ele>
        <time>2015-09-24T09:03:36Z</time>
      </trkpt>
      <trkpt lat="42.26523" lon="0.05916">
        <ele>820.1</ele>
        <time>2015-09-24T09:03:38Z</time>
      </trkpt>
      <trkpt lat="42.26519" lon="0.05914">
        <ele>820.1</ele>
        <time>2015-09-24T09:03:40Z</time>
      </trkpt>
      <trkpt lat="42.26516" lon="0.05913">
        <ele>820.4</ele>
        <time>2015-09-24T09:03:42Z</time>
      </trkpt>
      <trkpt lat="42.26513" lon="0.05911">
        <ele>820.4</ele>
        <time>2015-09-24T09:03:44Z</time>
      </trkpt>
      <trkpt lat="42.2651" lon="0.05908">
        <ele>820.4</ele>
        <time>2015-09-24T09:03:46Z</time>
      </trkpt>
      <trkpt lat="42.26506" lon="0.05905">
        <ele>820.5</ele>
        <time>2015-09-24T09:03:48Z</time>
      </trkpt>
      <trkpt lat="42.26503" lon="0.05902">
        <ele>820.7</ele>
        <time>2015-09-24T09:03:50Z</time>
      </trkpt>
      <trkpt lat="42.26499" lon="0.059">
        <ele>821</ele>
        <time>2015-09-24T09:03:52Z</time>
      </trkpt>
      <trkpt lat="42.26496" lon="0.05897">
        <ele>821.2</ele>
        <time>2015-09-24T09:03:54Z</time>
      </trkpt>
      <trkpt lat="42.26493" lon="0.05895">
        <ele>821.5</ele>
        <time>2015-09-24T09:03:56Z</time>
      </trkpt>
      <trkpt lat="42.2649" lon="0.05893">
        <ele>822</ele>
        <time>2015-09-24T09:03:58Z</time>
      </trkpt>
      <trkpt lat="42.26486" lon="0.05892">
        <ele>822.5</ele>
        <time>2015-09-24T09:04:00Z</time>
      </trkpt>
      <trkpt lat="42.26483" lon="0.0589">
        <ele>823.1</ele>
        <time>2015-09-24T09:04:02Z</time>
      </trkpt>
      <trkpt lat="42.26479" lon="0.05888">
        <ele>823.7</ele>
        <time>2015-09-24T09:04:04Z</time>
      </trkpt>
      <trkpt lat="42.26476" lon="0.05887">
        <ele>824.3</ele>
        <time>2015-09-24T09:04:06Z</time>
      </trkpt>
      <trkpt lat="42.26472" lon="0.05885">
        <ele>824.9</ele>
        <time>2015-09-24T09:04:08Z</time>
      </trkpt>
      <trkpt lat="42.26469" lon="0.05884">
        <ele>825.6</ele>
        <time>2015-09-24T09:04:10Z</time>
      </trkpt>
      <trkpt lat="42.26466" lon="0.05882">
        <ele>826.4</ele>
        <time>2015-09-24T09:04:12Z</time>
      </trkpt>
      <trkpt lat="42.26462" lon="0.05881">
        <ele>827</ele>
        <time>2015-09-24T09:04:14Z</time>
      </trkpt>
      <trkpt lat="42.26459" lon="0.05879">
        <ele>827.8</ele>
        <time>2015-09-24T09:04:16Z</time>
      </trkpt>
      <trkpt lat="42.26456" lon="0.05878">
        <ele>827.7</ele>
        <time>2015-09-24T09:04:18Z</time>
      </trkpt>
      <trkpt lat="42.26453" lon="0.05877">
        <ele>827.2</ele>
        <time>2015-09-24T09:04:23Z</time>
      </trkpt>
      <trkpt lat="42.26451" lon="0.05875">
        <ele>826.9</ele>
        <time>2015-09-24T09:04:26Z</time>
      </trkpt>
      <trkpt lat="42.26449" lon="0.05872">
        <ele>826.1</ele>
        <time>2015-09-24T09:04:29Z</time>
      </trkpt>
      <trkpt lat="42.26446" lon="0.05869">
        <ele>825.3</ele>
        <time>2015-09-24T09:04:32Z</time>
      </trkpt>
      <trkpt lat="42.26442" lon="0.05866">
        <ele>824.4</ele>
        <time>2015-09-24T09:04:35Z</time>
      </trkpt>
      <trkpt lat="42.26439" lon="0.05862">
        <ele>823.5</ele>
        <time>2015-09-24T09:04:37Z</time>
      </trkpt>
      <trkpt lat="42.26436" lon="0.05859">
        <ele>822.5</ele>
        <time>2015-09-24T09:04:39Z</time>
      </trkpt>
      <trkpt lat="42.26432" lon="0.05855">
        <ele>821.3</ele>
        <time>2015-09-24T09:04:41Z</time>
      </trkpt>
      <trkpt lat="42.26428" lon="0.05851">
        <ele>820.1</ele>
        <time>2015-09-24T09:04:43Z</time>
      </trkpt>
      <trkpt lat="42.26424" lon="0.0585">
        <ele>819.3</ele>
        <time>2015-09-24T09:05:05Z</time>
      </trkpt>
      <trkpt lat="42.26427" lon="0.05847">
        <ele>819.4</ele>
        <time>2015-09-24T09:05:35Z</time>
      </trkpt>
      <trkpt lat="42.26424" lon="0.05847">
        <ele>818.8</ele>
        <time>2015-09-24T09:06:03Z</time>
      </trkpt>
      <trkpt lat="42.26424" lon="0.05843">
        <ele>818.4</ele>
        <time>2015-09-24T09:06:07Z</time>
      </trkpt>
      <trkpt lat="42.26427" lon="0.05841">
        <ele>818.5</ele>
        <time>2015-09-24T09:06:13Z</time>
      </trkpt>
      <trkpt lat="42.26431" lon="0.05835">
        <ele>818.3</ele>
        <time>2015-09-24T09:06:15Z</time>
      </trkpt>
      <trkpt lat="42.26433" lon="0.05832">
        <ele>818.2</ele>
        <time>2015-09-24T09:06:16Z</time>
      </trkpt>
      <trkpt lat="42.26435" lon="0.05828">
        <ele>817.9</ele>
        <time>2015-09-24T09:06:17Z</time>
      </trkpt>
      <trkpt lat="42.26437" lon="0.05823">
        <ele>817.6</ele>
        <time>2015-09-24T09:06:18Z</time>
      </trkpt>
      <trkpt lat="42.26439" lon="0.05816">
        <ele>817</ele>
        <time>2015-09-24T09:06:19Z</time>
      </trkpt>
      <trkpt lat="42.2644" lon="0.05808">
        <ele>815.9</ele>
        <time>2015-09-24T09:06:20Z</time>
      </trkpt>
      <trkpt lat="42.2644" lon="0.05799">
        <ele>814.9</ele>
        <time>2015-09-24T09:06:21Z</time>
      </trkpt>
      <trkpt lat="42.26441" lon="0.05791">
        <ele>813.8</ele>
        <time>2015-09-24T09:06:22Z</time>
      </trkpt>
      <trkpt lat="42.26441" lon="0.05783">
        <ele>812.7</ele>
        <time>2015-09-24T09:06:23Z</time>
      </trkpt>
      <trkpt lat="42.2644" lon="0.05776">
        <ele>811.7</ele>
        <time>2015-09-24T09:06:24Z</time>
      </trkpt>
      <trkpt lat="42.2644" lon="0.05769">
        <ele>810.6</ele>
        <time>2015-09-24T09:06:25Z</time>
      </trkpt>
      <trkpt lat="42.2644" lon="0.05763">
        <ele>809.8</ele>
        <time>2015-09-24T09:06:26Z</time>
      </trkpt>
      <trkpt lat="42.26438" lon="0.05759">
        <ele>808.8</ele>
        <time>2015-09-24T09:06:27Z</time>
      </trkpt>
      <trkpt lat="42.26435" lon="0.05757">
        <ele>807.8</ele>
        <time>2015-09-24T09:06:28Z</time>
      </trkpt>
      <trkpt lat="42.26432" lon="0.05757">
        <ele>807</ele>
        <time>2015-09-24T09:06:29Z</time>
      </trkpt>
      <trkpt lat="42.26429" lon="0.05758">
        <ele>806.4</ele>
        <time>2015-09-24T09:06:30Z</time>
      </trkpt>
      <trkpt lat="42.26426" lon="0.05759">
        <ele>805.9</ele>
        <time>2015-09-24T09:06:31Z</time>
      </trkpt>
      <trkpt lat="42.26421" lon="0.0576">
        <ele>805.1</ele>
        <time>2015-09-24T09:06:32Z</time>
      </trkpt>
      <trkpt lat="42.26417" lon="0.05761">
        <ele>804.2</ele>
        <time>2015-09-24T09:06:33Z</time>
      </trkpt>
      <trkpt lat="42.26412" lon="0.05762">
        <ele>803.2</ele>
        <time>2015-09-24T09:06:34Z</time>
      </trkpt>
      <trkpt lat="42.26406" lon="0.05764">
        <ele>802.2</ele>
        <time>2015-09-24T09:06:35Z</time>
      </trkpt>
      <trkpt lat="42.264" lon="0.05766">
        <ele>801.3</ele>
        <time>2015-09-24T09:06:36Z</time>
      </trkpt>
      <trkpt lat="42.26394" lon="0.0577">
        <ele>800.9</ele>
        <time>2015-09-24T09:06:37Z</time>
      </trkpt>
      <trkpt lat="42.26389" lon="0.05775">
        <ele>800.9</ele>
        <time>2015-09-24T09:06:38Z</time>
      </trkpt>
      <trkpt lat="42.26384" lon="0.05781">
        <ele>801.2</ele>
        <time>2015-09-24T09:06:39Z</time>
      </trkpt>
      <trkpt lat="42.2638" lon="0.05787">
        <ele>801.8</ele>
        <time>2015-09-24T09:06:40Z</time>
      </trkpt>
      <trkpt lat="42.26375" lon="0.05793">
        <ele>802.3</ele>
        <time>2015-09-24T09:06:41Z</time>
      </trkpt>
      <trkpt lat="42.2637" lon="0.05797">
        <ele>801.5</ele>
        <time>2015-09-24T09:06:42Z</time>
      </trkpt>
      <trkpt lat="42.26364" lon="0.05801">
        <ele>800.6</ele>
        <time>2015-09-24T09:06:43Z</time>
      </trkpt>
      <trkpt lat="42.2636" lon="0.05803">
        <ele>799.8</ele>
        <time>2015-09-24T09:06:44Z</time>
      </trkpt>
      <trkpt lat="42.26355" lon="0.05807">
        <ele>799.2</ele>
        <time>2015-09-24T09:06:45Z</time>
      </trkpt>
      <trkpt lat="42.26353" lon="0.05811">
        <ele>799.2</ele>
        <time>2015-09-24T09:06:46Z</time>
      </trkpt>
      <trkpt lat="42.26351" lon="0.05814">
        <ele>799.3</ele>
        <time>2015-09-24T09:06:47Z</time>
      </trkpt>
      <trkpt lat="42.26349" lon="0.0582">
        <ele>799.6</ele>
        <time>2015-09-24T09:06:49Z</time>
      </trkpt>
      <trkpt lat="42.26349" lon="0.05823">
        <ele>800.2</ele>
        <time>2015-09-24T09:06:51Z</time>
      </trkpt>
      <trkpt lat="42.26349" lon="0.05828">
        <ele>801.1</ele>
        <time>2015-09-24T09:06:53Z</time>
      </trkpt>
      <trkpt lat="42.26351" lon="0.05834">
        <ele>802.4</ele>
        <time>2015-09-24T09:06:55Z</time>
      </trkpt>
      <trkpt lat="42.26351" lon="0.0584">
        <ele>803.5</ele>
        <time>2015-09-24T09:06:57Z</time>
      </trkpt>
      <trkpt lat="42.26352" lon="0.05847">
        <ele>804.7</ele>
        <time>2015-09-24T09:06:59Z</time>
      </trkpt>
      <trkpt lat="42.26352" lon="0.05853">
        <ele>805.7</ele>
        <time>2015-09-24T09:07:01Z</time>
      </trkpt>
      <trkpt lat="42.26352" lon="0.05857">
        <ele>806.6</ele>
        <time>2015-09-24T09:07:03Z</time>
      </trkpt>
      <trkpt lat="42.26354" lon="0.05862">
        <ele>807.7</ele>
        <time>2015-09-24T09:07:05Z</time>
      </trkpt>
      <trkpt lat="42.26356" lon="0.05869">
        <ele>809.3</ele>
        <time>2015-09-24T09:07:07Z</time>
      </trkpt>
      <trkpt lat="42.26357" lon="0.05872">
        <ele>810.3</ele>
        <time>2015-09-24T09:07:08Z</time>
      </trkpt>
      <trkpt lat="42.26358" lon="0.05875">
        <ele>811.2</ele>
        <time>2015-09-24T09:07:09Z</time>
      </trkpt>
      <trkpt lat="42.2636" lon="0.05879">
        <ele>811.4</ele>
        <time>2015-09-24T09:07:10Z</time>
      </trkpt>
      <trkpt lat="42.26362" lon="0.05882">
        <ele>811.7</ele>
        <time>2015-09-24T09:07:11Z</time>
      </trkpt>
      <trkpt lat="42.26364" lon="0.05887">
        <ele>811.8</ele>
        <time>2015-09-24T09:07:12Z</time>
      </trkpt>
      <trkpt lat="42.26366" lon="0.05893">
        <ele>811.9</ele>
        <time>2015-09-24T09:07:13Z</time>
      </trkpt>
      <trkpt lat="42.26367" lon="0.05901">
        <ele>811.6</ele>
        <time>2015-09-24T09:07:14Z</time>
      </trkpt>
      <trkpt lat="42.26368" lon="0.05907">
        <ele>811.5</ele>
        <time>2015-09-24T09:07:15Z</time>
      </trkpt>
      <trkpt lat="42.2637" lon="0.05911">
        <ele>811.4</ele>
        <time>2015-09-24T09:07:16Z</time>
      </trkpt>
      <trkpt lat="42.26371" lon="0.05918">
        <ele>811.4</ele>
        <time>2015-09-24T09:07:18Z</time>
      </trkpt>
      <trkpt lat="42.26372" lon="0.05923">
        <ele>811.2</ele>
        <time>2015-09-24T09:07:20Z</time>
      </trkpt>
      <trkpt lat="42.26372" lon="0.05916">
        <ele>811.6</ele>
        <time>2015-09-24T09:07:35Z</time>
      </trkpt>
      <trkpt lat="42.2637" lon="0.05913">
        <ele>811.5</ele>
        <time>2015-09-24T09:07:36Z</time>
      </trkpt>
      <trkpt lat="42.26369" lon="0.05909">
        <ele>811.4</ele>
        <time>2015-09-24T09:07:37Z</time>
      </trkpt>
      <trkpt lat="42.26367" lon="0.05905">
        <ele>811.3</ele>
        <time>2015-09-24T09:07:38Z</time>
      </trkpt>
      <trkpt lat="42.26366" lon="0.05901">
        <ele>811.4</ele>
        <time>2015-09-24T09:07:39Z</time>
      </trkpt>
      <trkpt lat="42.26365" lon="0.05897">
        <ele>811.5</ele>
        <time>2015-09-24T09:07:40Z</time>
      </trkpt>
      <trkpt lat="42.26364" lon="0.05893">
        <ele>811.5</ele>
        <time>2015-09-24T09:07:41Z</time>
      </trkpt>
      <trkpt lat="42.26363" lon="0.05889">
        <ele>811.5</ele>
        <time>2015-09-24T09:07:42Z</time>
      </trkpt>
      <trkpt lat="42.26362" lon="0.05885">
        <ele>811.5</ele>
        <time>2015-09-24T09:07:43Z</time>
      </trkpt>
      <trkpt lat="42.26361" lon="0.05881">
        <ele>811.5</ele>
        <time>2015-09-24T09:07:44Z</time>
      </trkpt>
      <trkpt lat="42.2636" lon="0.05878">
        <ele>811.4</ele>
        <time>2015-09-24T09:07:45Z</time>
      </trkpt>
      <trkpt lat="42.26359" lon="0.05874">
        <ele>811.1</ele>
        <time>2015-09-24T09:07:46Z</time>
      </trkpt>
      <trkpt lat="42.26357" lon="0.05871">
        <ele>810.1</ele>
        <time>2015-09-24T09:07:47Z</time>
      </trkpt>
      <trkpt lat="42.26356" lon="0.05867">
        <ele>809.1</ele>
        <time>2015-09-24T09:07:48Z</time>
      </trkpt>
      <trkpt lat="42.26354" lon="0.05864">
        <ele>808.1</ele>
        <time>2015-09-24T09:07:49Z</time>
      </trkpt>
      <trkpt lat="42.26353" lon="0.0586">
        <ele>807.2</ele>
        <time>2015-09-24T09:07:50Z</time>
      </trkpt>
      <trkpt lat="42.26352" lon="0.05856">
        <ele>806.2</ele>
        <time>2015-09-24T09:07:51Z</time>
      </trkpt>
      <trkpt lat="42.26351" lon="0.05852">
        <ele>805.4</ele>
        <time>2015-09-24T09:07:52Z</time>
      </trkpt>
      <trkpt lat="42.2635" lon="0.05848">
        <ele>804.6</ele>
        <time>2015-09-24T09:07:53Z</time>
      </trkpt>
      <trkpt lat="42.2635" lon="0.05844">
        <ele>803.8</ele>
        <time>2015-09-24T09:07:54Z</time>
      </trkpt>
      <trkpt lat="42.2635" lon="0.0584">
        <ele>803.1</ele>
        <time>2015-09-24T09:07:55Z</time>
      </trkpt>
      <trkpt lat="42.2635" lon="0.05834">
        <ele>802.1</ele>
        <time>2015-09-24T09:07:56Z</time>
      </trkpt>
      <trkpt lat="42.26349" lon="0.05829">
        <ele>801</ele>
        <time>2015-09-24T09:07:57Z</time>
      </trkpt>
      <trkpt lat="42.26348" lon="0.05824">
        <ele>800.1</ele>
        <time>2015-09-24T09:07:58Z</time>
      </trkpt>
      <trkpt lat="42.26348" lon="0.05819">
        <ele>799.2</ele>
        <time>2015-09-24T09:07:59Z</time>
      </trkpt>
      <trkpt lat="42.26348" lon="0.05814">
        <ele>798.3</ele>
        <time>2015-09-24T09:08:01Z</time>
      </trkpt>
      <trkpt lat="42.26348" lon="0.05809">
        <ele>797.7</ele>
        <time>2015-09-24T09:08:03Z</time>
      </trkpt>
      <trkpt lat="42.26349" lon="0.05804">
        <ele>797</ele>
        <time>2015-09-24T09:08:05Z</time>
      </trkpt>
      <trkpt lat="42.26349" lon="0.058">
        <ele>796.5</ele>
        <time>2015-09-24T09:08:07Z</time>
      </trkpt>
      <trkpt lat="42.26349" lon="0.05808">
        <ele>797.6</ele>
        <time>2015-09-24T09:10:22Z</time>
      </trkpt>
      <trkpt lat="42.26349" lon="0.05814">
        <ele>798.7</ele>
        <time>2015-09-24T09:10:24Z</time>
      </trkpt>
      <trkpt lat="42.26349" lon="0.05818">
        <ele>799.4</ele>
        <time>2015-09-24T09:10:25Z</time>
      </trkpt>
      <trkpt lat="42.26349" lon="0.05823">
        <ele>800.3</ele>
        <time>2015-09-24T09:10:26Z</time>
      </trkpt>
      <trkpt lat="42.2635" lon="0.05829">
        <ele>801.3</ele>
        <time>2015-09-24T09:10:27Z</time>
      </trkpt>
      <trkpt lat="42.2635" lon="0.05835">
        <ele>802.4</ele>
        <time>2015-09-24T09:10:28Z</time>
      </trkpt>
      <trkpt lat="42.26351" lon="0.0584">
        <ele>803.5</ele>
        <time>2015-09-24T09:10:29Z</time>
      </trkpt>
      <trkpt lat="42.26352" lon="0.05845">
        <ele>804.5</ele>
        <time>2015-09-24T09:10:30Z</time>
      </trkpt>
      <trkpt lat="42.26352" lon="0.05851">
        <ele>805.5</ele>
        <time>2015-09-24T09:10:31Z</time>
      </trkpt>
      <trkpt lat="42.26353" lon="0.05855">
        <ele>806.4</ele>
        <time>2015-09-24T09:10:32Z</time>
      </trkpt>
      <trkpt lat="42.26354" lon="0.05859">
        <ele>807.3</ele>
        <time>2015-09-24T09:10:33Z</time>
      </trkpt>
      <trkpt lat="42.26355" lon="0.05864">
        <ele>808.3</ele>
        <time>2015-09-24T09:10:34Z</time>
      </trkpt>
      <trkpt lat="42.26356" lon="0.05868">
        <ele>809.5</ele>
        <time>2015-09-24T09:10:35Z</time>
      </trkpt>
      <trkpt lat="42.26358" lon="0.05874">
        <ele>811</ele>
        <time>2015-09-24T09:10:36Z</time>
      </trkpt>
      <trkpt lat="42.2636" lon="0.05879">
        <ele>811.4</ele>
        <time>2015-09-24T09:10:37Z</time>
      </trkpt>
      <trkpt lat="42.26364" lon="0.05886">
        <ele>811.8</ele>
        <time>2015-09-24T09:10:38Z</time>
      </trkpt>
      <trkpt lat="42.26366" lon="0.05893">
        <ele>811.9</ele>
        <time>2015-09-24T09:10:39Z</time>
      </trkpt>
      <trkpt lat="42.26367" lon="0.059">
        <ele>811.7</ele>
        <time>2015-09-24T09:10:40Z</time>
      </trkpt>
      <trkpt lat="42.26369" lon="0.05908">
        <ele>811.7</ele>
        <time>2015-09-24T09:10:41Z</time>
      </trkpt>
      <trkpt lat="42.26371" lon="0.05915">
        <ele>811.6</ele>
        <time>2015-09-24T09:10:42Z</time>
      </trkpt>
      <trkpt lat="42.26373" lon="0.05922">
        <ele>811.5</ele>
        <time>2015-09-24T09:10:43Z</time>
      </trkpt>
      <trkpt lat="42.26375" lon="0.05928">
        <ele>811.5</ele>
        <time>2015-09-24T09:10:44Z</time>
      </trkpt>
      <trkpt lat="42.26376" lon="0.05933">
        <ele>811.4</ele>
        <time>2015-09-24T09:10:45Z</time>
      </trkpt>
      <trkpt lat="42.26377" lon="0.05938">
        <ele>811.2</ele>
        <time>2015-09-24T09:10:46Z</time>
      </trkpt>
      <trkpt lat="42.26378" lon="0.05944">
        <ele>810.9</ele>
        <time>2015-09-24T09:10:47Z</time>
      </trkpt>
      <trkpt lat="42.2638" lon="0.0595">
        <ele>810.7</ele>
        <time>2015-09-24T09:10:48Z</time>
      </trkpt>
      <trkpt lat="42.26382" lon="0.05957">
        <ele>810.5</ele>
        <time>2015-09-24T09:10:49Z</time>
      </trkpt>
      <trkpt lat="42.26383" lon="0.05963">
        <ele>810.2</ele>
        <time>2015-09-24T09:10:50Z</time>
      </trkpt>
      <trkpt lat="42.26385" lon="0.05972">
        <ele>809.5</ele>
        <time>2015-09-24T09:10:51Z</time>
      </trkpt>
      <trkpt lat="42.26385" lon="0.05981">
        <ele>808.6</ele>
        <time>2015-09-24T09:10:52Z</time>
      </trkpt>
      <trkpt lat="42.26386" lon="0.0599">
        <ele>807.8</ele>
        <time>2015-09-24T09:10:53Z</time>
      </trkpt>
      <trkpt lat="42.26387" lon="0.05999">
        <ele>806.9</ele>
        <time>2015-09-24T09:10:54Z</time>
      </trkpt>
      <trkpt lat="42.26388" lon="0.06009">
        <ele>806</ele>
        <time>2015-09-24T09:10:55Z</time>
      </trkpt>
      <trkpt lat="42.2639" lon="0.06019">
        <ele>805.2</ele>
        <time>2015-09-24T09:10:56Z</time>
      </trkpt>
      <trkpt lat="42.26391" lon="0.06028">
        <ele>804.4</ele>
        <time>2015-09-24T09:10:57Z</time>
      </trkpt>
      <trkpt lat="42.26392" lon="0.06035">
        <ele>803.8</ele>
        <time>2015-09-24T09:10:58Z</time>
      </trkpt>
      <trkpt lat="42.26393" lon="0.06042">
        <ele>803.2</ele>
        <time>2015-09-24T09:10:59Z</time>
      </trkpt>
      <trkpt lat="42.26393" lon="0.06047">
        <ele>802.7</ele>
        <time>2015-09-24T09:11:00Z</time>
      </trkpt>
      <trkpt lat="42.26393" lon="0.0605">
        <ele>802.3</ele>
        <time>2015-09-24T09:11:01Z</time>
      </trkpt>
      <trkpt lat="42.26393" lon="0.06056">
        <ele>801.6</ele>
        <time>2015-09-24T09:11:03Z</time>
      </trkpt>
      <trkpt lat="42.26393" lon="0.06062">
        <ele>800.9</ele>
        <time>2015-09-24T09:11:05Z</time>
      </trkpt>
      <trkpt lat="42.26394" lon="0.06069">
        <ele>800.3</ele>
        <time>2015-09-24T09:11:07Z</time>
      </trkpt>
      <trkpt lat="42.26394" lon="0.06076">
        <ele>799.6</ele>
        <time>2015-09-24T09:11:09Z</time>
      </trkpt>
      <trkpt lat="42.26394" lon="0.06083">
        <ele>798.8</ele>
        <time>2015-09-24T09:11:11Z</time>
      </trkpt>
      <trkpt lat="42.26394" lon="0.06089">
        <ele>798</ele>
        <time>2015-09-24T09:11:13Z</time>
      </trkpt>
      <trkpt lat="42.26393" lon="0.06094">
        <ele>797.3</ele>
        <time>2015-09-24T09:11:15Z</time>
      </trkpt>
      <trkpt lat="42.26392" lon="0.06098">
        <ele>796.6</ele>
        <time>2015-09-24T09:11:17Z</time>
      </trkpt>
      <trkpt lat="42.26392" lon="0.06094">
        <ele>797.1</ele>
        <time>2015-09-24T09:11:27Z</time>
      </trkpt>
      <trkpt lat="42.26392" lon="0.06089">
        <ele>797.5</ele>
        <time>2015-09-24T09:11:29Z</time>
      </trkpt>
      <trkpt lat="42.26392" lon="0.06084">
        <ele>798.2</ele>
        <time>2015-09-24T09:11:31Z</time>
      </trkpt>
      <trkpt lat="42.26392" lon="0.06079">
        <ele>798.8</ele>
        <time>2015-09-24T09:11:33Z</time>
      </trkpt>
      <trkpt lat="42.26393" lon="0.06074">
        <ele>799.5</ele>
        <time>2015-09-24T09:11:36Z</time>
      </trkpt>
      <trkpt lat="42.26393" lon="0.06068">
        <ele>800.4</ele>
        <time>2015-09-24T09:11:39Z</time>
      </trkpt>
      <trkpt lat="42.26393" lon="0.06061">
        <ele>801</ele>
        <time>2015-09-24T09:11:41Z</time>
      </trkpt>
      <trkpt lat="42.26392" lon="0.06055">
        <ele>801.6</ele>
        <time>2015-09-24T09:11:43Z</time>
      </trkpt>
      <trkpt lat="42.26392" lon="0.06049">
        <ele>802.3</ele>
        <time>2015-09-24T09:11:45Z</time>
      </trkpt>
      <trkpt lat="42.26392" lon="0.06042">
        <ele>803</ele>
        <time>2015-09-24T09:11:47Z</time>
      </trkpt>
      <trkpt lat="42.26392" lon="0.06035">
        <ele>803.7</ele>
        <time>2015-09-24T09:11:49Z</time>
      </trkpt>
      <trkpt lat="42.26391" lon="0.06029">
        <ele>804.3</ele>
        <time>2015-09-24T09:11:51Z</time>
      </trkpt>
      <trkpt lat="42.2639" lon="0.06022">
        <ele>804.8</ele>
        <time>2015-09-24T09:11:53Z</time>
      </trkpt>
      <trkpt lat="42.26389" lon="0.06016">
        <ele>805.3</ele>
        <time>2015-09-24T09:11:55Z</time>
      </trkpt>
      <trkpt lat="42.26387" lon="0.06009">
        <ele>805.7</ele>
        <time>2015-09-24T09:11:57Z</time>
      </trkpt>
      <trkpt lat="42.26387" lon="0.06003">
        <ele>806.3</ele>
        <time>2015-09-24T09:11:59Z</time>
      </trkpt>
      <trkpt lat="42.26386" lon="0.05996">
        <ele>806.9</ele>
        <time>2015-09-24T09:12:01Z</time>
      </trkpt>
      <trkpt lat="42.26385" lon="0.05993">
        <ele>807.1</ele>
        <time>2015-09-24T09:12:04Z</time>
      </trkpt>
      <trkpt lat="42.26382" lon="0.05991">
        <ele>806.7</ele>
        <time>2015-09-24T09:12:07Z</time>
      </trkpt>
      <trkpt lat="42.26379" lon="0.05987">
        <ele>806.5</ele>
        <time>2015-09-24T09:12:09Z</time>
      </trkpt>
      <trkpt lat="42.26376" lon="0.05982">
        <ele>806.5</ele>
        <time>2015-09-24T09:12:11Z</time>
      </trkpt>
      <trkpt lat="42.26373" lon="0.05979">
        <ele>806.1</ele>
        <time>2015-09-24T09:12:13Z</time>
      </trkpt>
      <trkpt lat="42.26369" lon="0.05979">
        <ele>805</ele>
        <time>2015-09-24T09:12:15Z</time>
      </trkpt>
      <trkpt lat="42.26363" lon="0.05979">
        <ele>803.6</ele>
        <time>2015-09-24T09:12:17Z</time>
      </trkpt>
      <trkpt lat="42.2636" lon="0.05978">
        <ele>803.1</ele>
        <time>2015-09-24T09:12:18Z</time>
      </trkpt>
      <trkpt lat="42.26357" lon="0.05976">
        <ele>802.6</ele>
        <time>2015-09-24T09:12:19Z</time>
      </trkpt>
      <trkpt lat="42.26354" lon="0.05975">
        <ele>802</ele>
        <time>2015-09-24T09:12:20Z</time>
      </trkpt>
      <trkpt lat="42.26351" lon="0.05975">
        <ele>801.2</ele>
        <time>2015-09-24T09:12:21Z</time>
      </trkpt>
      <trkpt lat="42.26348" lon="0.05975">
        <ele>800.4</ele>
        <time>2015-09-24T09:12:22Z</time>
      </trkpt>
      <trkpt lat="42.26343" lon="0.05976">
        <ele>799.2</ele>
        <time>2015-09-24T09:12:23Z</time>
      </trkpt>
      <trkpt lat="42.26339" lon="0.05977">
        <ele>798.2</ele>
        <time>2015-09-24T09:12:24Z</time>
      </trkpt>
      <trkpt lat="42.26336" lon="0.05979">
        <ele>797.1</ele>
        <time>2015-09-24T09:12:25Z</time>
      </trkpt>
      <trkpt lat="42.26333" lon="0.05982">
        <ele>796.2</ele>
        <time>2015-09-24T09:12:26Z</time>
      </trkpt>
      <trkpt lat="42.2633" lon="0.05985">
        <ele>795.2</ele>
        <time>2015-09-24T09:12:27Z</time>
      </trkpt>
      <trkpt lat="42.26327" lon="0.05988">
        <ele>794.2</ele>
        <time>2015-09-24T09:12:28Z</time>
      </trkpt>
      <trkpt lat="42.26324" lon="0.05991">
        <ele>793.2</ele>
        <time>2015-09-24T09:12:29Z</time>
      </trkpt>
      <trkpt lat="42.26321" lon="0.05994">
        <ele>792.2</ele>
        <time>2015-09-24T09:12:30Z</time>
      </trkpt>
      <trkpt lat="42.26318" lon="0.05997">
        <ele>791.2</ele>
        <time>2015-09-24T09:12:31Z</time>
      </trkpt>
      <trkpt lat="42.26315" lon="0.05998">
        <ele>790.4</ele>
        <time>2015-09-24T09:12:32Z</time>
      </trkpt>
      <trkpt lat="42.26311" lon="0.05999">
        <ele>789.6</ele>
        <time>2015-09-24T09:12:33Z</time>
      </trkpt>
      <trkpt lat="42.26307" lon="0.06001">
        <ele>788.4</ele>
        <time>2015-09-24T09:12:35Z</time>
      </trkpt>
      <trkpt lat="42.26302" lon="0.06003">
        <ele>787.2</ele>
        <time>2015-09-24T09:12:37Z</time>
      </trkpt>
      <trkpt lat="42.26299" lon="0.06002">
        <ele>786.6</ele>
        <time>2015-09-24T09:12:38Z</time>
      </trkpt>
      <trkpt lat="42.26295" lon="0.06">
        <ele>785.7</ele>
        <time>2015-09-24T09:12:39Z</time>
      </trkpt>
      <trkpt lat="42.26291" lon="0.05999">
        <ele>785</ele>
        <time>2015-09-24T09:12:40Z</time>
      </trkpt>
      <trkpt lat="42.26288" lon="0.05999">
        <ele>784.5</ele>
        <time>2015-09-24T09:12:41Z</time>
      </trkpt>
      <trkpt lat="42.26285" lon="0.06">
        <ele>784</ele>
        <time>2015-09-24T09:12:42Z</time>
      </trkpt>
      <trkpt lat="42.26282" lon="0.06002">
        <ele>783.5</ele>
        <time>2015-09-24T09:12:43Z</time>
      </trkpt>
      <trkpt lat="42.26279" lon="0.06003">
        <ele>783</ele>
        <time>2015-09-24T09:12:44Z</time>
      </trkpt>
      <trkpt lat="42.26276" lon="0.06004">
        <ele>782.5</ele>
        <time>2015-09-24T09:12:45Z</time>
      </trkpt>
      <trkpt lat="42.26273" lon="0.06003">
        <ele>782.1</ele>
        <time>2015-09-24T09:12:46Z</time>
      </trkpt>
      <trkpt lat="42.2627" lon="0.06003">
        <ele>781.6</ele>
        <time>2015-09-24T09:12:47Z</time>
      </trkpt>
      <trkpt lat="42.26267" lon="0.06003">
        <ele>781.2</ele>
        <time>2015-09-24T09:12:48Z</time>
      </trkpt>
      <trkpt lat="42.26264" lon="0.06005">
        <ele>780.7</ele>
        <time>2015-09-24T09:12:49Z</time>
      </trkpt>
      <trkpt lat="42.26262" lon="0.06007">
        <ele>780.2</ele>
        <time>2015-09-24T09:12:50Z</time>
      </trkpt>
      <trkpt lat="42.26259" lon="0.06011">
        <ele>779.6</ele>
        <time>2015-09-24T09:12:51Z</time>
      </trkpt>
      <trkpt lat="42.26256" lon="0.06015">
        <ele>778.9</ele>
        <time>2015-09-24T09:12:52Z</time>
      </trkpt>
      <trkpt lat="42.26254" lon="0.06021">
        <ele>778.3</ele>
        <time>2015-09-24T09:12:53Z</time>
      </trkpt>
      <trkpt lat="42.26253" lon="0.06027">
        <ele>778</ele>
        <time>2015-09-24T09:12:54Z</time>
      </trkpt>
      <trkpt lat="42.26252" lon="0.06033">
        <ele>777.6</ele>
        <time>2015-09-24T09:12:55Z</time>
      </trkpt>
      <trkpt lat="42.26251" lon="0.06038">
        <ele>777.2</ele>
        <time>2015-09-24T09:12:56Z</time>
      </trkpt>
      <trkpt lat="42.26248" lon="0.06043">
        <ele>776.7</ele>
        <time>2015-09-24T09:12:57Z</time>
      </trkpt>
      <trkpt lat="42.26245" lon="0.06047">
        <ele>776.2</ele>
        <time>2015-09-24T09:12:58Z</time>
      </trkpt>
      <trkpt lat="42.2624" lon="0.06049">
        <ele>775.5</ele>
        <time>2015-09-24T09:12:59Z</time>
      </trkpt>
      <trkpt lat="42.26236" lon="0.06052">
        <ele>774.9</ele>
        <time>2015-09-24T09:13:00Z</time>
      </trkpt>
      <trkpt lat="42.26232" lon="0.06053">
        <ele>774.4</ele>
        <time>2015-09-24T09:13:01Z</time>
      </trkpt>
      <trkpt lat="42.26229" lon="0.06055">
        <ele>774</ele>
        <time>2015-09-24T09:13:02Z</time>
      </trkpt>
      <trkpt lat="42.26226" lon="0.06055">
        <ele>773.5</ele>
        <time>2015-09-24T09:13:03Z</time>
      </trkpt>
      <trkpt lat="42.26222" lon="0.06055">
        <ele>773.1</ele>
        <time>2015-09-24T09:13:04Z</time>
      </trkpt>
      <trkpt lat="42.26219" lon="0.06055">
        <ele>772.7</ele>
        <time>2015-09-24T09:13:05Z</time>
      </trkpt>
      <trkpt lat="42.26215" lon="0.06055">
        <ele>772.3</ele>
        <time>2015-09-24T09:13:06Z</time>
      </trkpt>
      <trkpt lat="42.26212" lon="0.06056">
        <ele>771.9</ele>
        <time>2015-09-24T09:13:07Z</time>
      </trkpt>
      <trkpt lat="42.26208" lon="0.06057">
        <ele>771.4</ele>
        <time>2015-09-24T09:13:08Z</time>
      </trkpt>
      <trkpt lat="42.26204" lon="0.06058">
        <ele>770.9</ele>
        <time>2015-09-24T09:13:09Z</time>
      </trkpt>
      <trkpt lat="42.262" lon="0.06059">
        <ele>770.4</ele>
        <time>2015-09-24T09:13:10Z</time>
      </trkpt>
      <trkpt lat="42.26196" lon="0.06061">
        <ele>769.9</ele>
        <time>2015-09-24T09:13:11Z</time>
      </trkpt>
      <trkpt lat="42.26191" lon="0.06063">
        <ele>769.3</ele>
        <time>2015-09-24T09:13:12Z</time>
      </trkpt>
      <trkpt lat="42.26186" lon="0.06064">
        <ele>768.7</ele>
        <time>2015-09-24T09:13:13Z</time>
      </trkpt>
      <trkpt lat="42.26181" lon="0.06065">
        <ele>768</ele>
        <time>2015-09-24T09:13:14Z</time>
      </trkpt>
      <trkpt lat="42.26175" lon="0.06065">
        <ele>767.3</ele>
        <time>2015-09-24T09:13:15Z</time>
      </trkpt>
      <trkpt lat="42.26168" lon="0.06064">
        <ele>766.6</ele>
        <time>2015-09-24T09:13:16Z</time>
      </trkpt>
      <trkpt lat="42.26162" lon="0.06063">
        <ele>765.9</ele>
        <time>2015-09-24T09:13:17Z</time>
      </trkpt>
      <trkpt lat="42.26156" lon="0.06062">
        <ele>765.3</ele>
        <time>2015-09-24T09:13:18Z</time>
      </trkpt>
      <trkpt lat="42.26151" lon="0.06062">
        <ele>764.7</ele>
        <time>2015-09-24T09:13:19Z</time>
      </trkpt>
      <trkpt lat="42.26146" lon="0.06062">
        <ele>764.2</ele>
        <time>2015-09-24T09:13:20Z</time>
      </trkpt>
      <trkpt lat="42.26143" lon="0.06064">
        <ele>763.8</ele>
        <time>2015-09-24T09:13:21Z</time>
      </trkpt>
      <trkpt lat="42.2614" lon="0.06066">
        <ele>763.4</ele>
        <time>2015-09-24T09:13:22Z</time>
      </trkpt>
      <trkpt lat="42.26137" lon="0.0607">
        <ele>763</ele>
        <time>2015-09-24T09:13:23Z</time>
      </trkpt>
      <trkpt lat="42.26133" lon="0.06074">
        <ele>762.5</ele>
        <time>2015-09-24T09:13:24Z</time>
      </trkpt>
      <trkpt lat="42.26128" lon="0.06078">
        <ele>761.9</ele>
        <time>2015-09-24T09:13:25Z</time>
      </trkpt>
      <trkpt lat="42.26123" lon="0.06082">
        <ele>761.2</ele>
        <time>2015-09-24T09:13:26Z</time>
      </trkpt>
      <trkpt lat="42.26118" lon="0.06086">
        <ele>760.3</ele>
        <time>2015-09-24T09:13:27Z</time>
      </trkpt>
      <trkpt lat="42.26113" lon="0.06091">
        <ele>759.3</ele>
        <time>2015-09-24T09:13:28Z</time>
      </trkpt>
      <trkpt lat="42.26107" lon="0.06096">
        <ele>758.4</ele>
        <time>2015-09-24T09:13:29Z</time>
      </trkpt>
      <trkpt lat="42.26102" lon="0.061">
        <ele>757.6</ele>
        <time>2015-09-24T09:13:30Z</time>
      </trkpt>
      <trkpt lat="42.26097" lon="0.06104">
        <ele>756.7</ele>
        <time>2015-09-24T09:13:31Z</time>
      </trkpt>
      <trkpt lat="42.26091" lon="0.06108">
        <ele>755.7</ele>
        <time>2015-09-24T09:13:32Z</time>
      </trkpt>
      <trkpt lat="42.26084" lon="0.06112">
        <ele>754.6</ele>
        <time>2015-09-24T09:13:33Z</time>
      </trkpt>
      <trkpt lat="42.26078" lon="0.06114">
        <ele>753.6</ele>
        <time>2015-09-24T09:13:34Z</time>
      </trkpt>
      <trkpt lat="42.26074" lon="0.06118">
        <ele>753</ele>
        <time>2015-09-24T09:13:35Z</time>
      </trkpt>
      <trkpt lat="42.26069" lon="0.0612">
        <ele>752.2</ele>
        <time>2015-09-24T09:13:36Z</time>
      </trkpt>
      <trkpt lat="42.26065" lon="0.06121">
        <ele>751.5</ele>
        <time>2015-09-24T09:13:37Z</time>
      </trkpt>
      <trkpt lat="42.2606" lon="0.06122">
        <ele>750.8</ele>
        <time>2015-09-24T09:13:38Z</time>
      </trkpt>
      <trkpt lat="42.26056" lon="0.06122">
        <ele>750.2</ele>
        <time>2015-09-24T09:13:39Z</time>
      </trkpt>
      <trkpt lat="42.26051" lon="0.06123">
        <ele>749.4</ele>
        <time>2015-09-24T09:13:40Z</time>
      </trkpt>
      <trkpt lat="42.26047" lon="0.06124">
        <ele>748.8</ele>
        <time>2015-09-24T09:13:41Z</time>
      </trkpt>
      <trkpt lat="42.26043" lon="0.06125">
        <ele>748.2</ele>
        <time>2015-09-24T09:13:42Z</time>
      </trkpt>
      <trkpt lat="42.26039" lon="0.06126">
        <ele>747.8</ele>
        <time>2015-09-24T09:13:43Z</time>
      </trkpt>
      <trkpt lat="42.26037" lon="0.06127">
        <ele>747.5</ele>
        <time>2015-09-24T09:13:44Z</time>
      </trkpt>
      <trkpt lat="42.26032" lon="0.0613">
        <ele>747</ele>
        <time>2015-09-24T09:13:46Z</time>
      </trkpt>
      <trkpt lat="42.26029" lon="0.06132">
        <ele>746.7</ele>
        <time>2015-09-24T09:13:47Z</time>
      </trkpt>
      <trkpt lat="42.26025" lon="0.06133">
        <ele>746.3</ele>
        <time>2015-09-24T09:13:49Z</time>
      </trkpt>
      <trkpt lat="42.26022" lon="0.06132">
        <ele>746.1</ele>
        <time>2015-09-24T09:13:50Z</time>
      </trkpt>
      <trkpt lat="42.26019" lon="0.06131">
        <ele>745.9</ele>
        <time>2015-09-24T09:13:51Z</time>
      </trkpt>
      <trkpt lat="42.26016" lon="0.06129">
        <ele>745.7</ele>
        <time>2015-09-24T09:13:52Z</time>
      </trkpt>
      <trkpt lat="42.26014" lon="0.06127">
        <ele>745.5</ele>
        <time>2015-09-24T09:13:53Z</time>
      </trkpt>
      <trkpt lat="42.26011" lon="0.06125">
        <ele>745.4</ele>
        <time>2015-09-24T09:13:54Z</time>
      </trkpt>
      <trkpt lat="42.26008" lon="0.06122">
        <ele>745.2</ele>
        <time>2015-09-24T09:13:55Z</time>
      </trkpt>
      <trkpt lat="42.26006" lon="0.0612">
        <ele>744.9</ele>
        <time>2015-09-24T09:13:56Z</time>
      </trkpt>
      <trkpt lat="42.26003" lon="0.06117">
        <ele>744.7</ele>
        <time>2015-09-24T09:13:57Z</time>
      </trkpt>
      <trkpt lat="42.25999" lon="0.06114">
        <ele>744.3</ele>
        <time>2015-09-24T09:13:58Z</time>
      </trkpt>
      <trkpt lat="42.25995" lon="0.0611">
        <ele>744</ele>
        <time>2015-09-24T09:13:59Z</time>
      </trkpt>
      <trkpt lat="42.2599" lon="0.06104">
        <ele>743.5</ele>
        <time>2015-09-24T09:14:00Z</time>
      </trkpt>
      <trkpt lat="42.25986" lon="0.061">
        <ele>743.2</ele>
        <time>2015-09-24T09:14:01Z</time>
      </trkpt>
      <trkpt lat="42.25983" lon="0.06096">
        <ele>742.9</ele>
        <time>2015-09-24T09:14:02Z</time>
      </trkpt>
      <trkpt lat="42.25979" lon="0.06092">
        <ele>742.6</ele>
        <time>2015-09-24T09:14:03Z</time>
      </trkpt>
      <trkpt lat="42.25975" lon="0.06088">
        <ele>742.3</ele>
        <time>2015-09-24T09:14:04Z</time>
      </trkpt>
      <trkpt lat="42.25971" lon="0.06083">
        <ele>742</ele>
        <time>2015-09-24T09:14:05Z</time>
      </trkpt>
      <trkpt lat="42.25968" lon="0.06079">
        <ele>741.7</ele>
        <time>2015-09-24T09:14:06Z</time>
      </trkpt>
      <trkpt lat="42.25964" lon="0.06074">
        <ele>741.5</ele>
        <time>2015-09-24T09:14:07Z</time>
      </trkpt>
      <trkpt lat="42.25961" lon="0.06069">
        <ele>741.2</ele>
        <time>2015-09-24T09:14:08Z</time>
      </trkpt>
      <trkpt lat="42.25958" lon="0.06065">
        <ele>741</ele>
        <time>2015-09-24T09:14:09Z</time>
      </trkpt>
      <trkpt lat="42.25955" lon="0.06061">
        <ele>740.5</ele>
        <time>2015-09-24T09:14:10Z</time>
      </trkpt>
      <trkpt lat="42.25952" lon="0.06057">
        <ele>739.9</ele>
        <time>2015-09-24T09:14:11Z</time>
      </trkpt>
      <trkpt lat="42.25949" lon="0.06054">
        <ele>739.3</ele>
        <time>2015-09-24T09:14:12Z</time>
      </trkpt>
      <trkpt lat="42.25945" lon="0.0605">
        <ele>738.7</ele>
        <time>2015-09-24T09:14:13Z</time>
      </trkpt>
      <trkpt lat="42.25941" lon="0.06047">
        <ele>738.1</ele>
        <time>2015-09-24T09:14:14Z</time>
      </trkpt>
      <trkpt lat="42.25938" lon="0.06043">
        <ele>737.6</ele>
        <time>2015-09-24T09:14:15Z</time>
      </trkpt>
      <trkpt lat="42.25935" lon="0.06039">
        <ele>736.9</ele>
        <time>2015-09-24T09:14:16Z</time>
      </trkpt>
      <trkpt lat="42.25932" lon="0.06033">
        <ele>736.1</ele>
        <time>2015-09-24T09:14:17Z</time>
      </trkpt>
      <trkpt lat="42.25929" lon="0.06028">
        <ele>735.4</ele>
        <time>2015-09-24T09:14:18Z</time>
      </trkpt>
      <trkpt lat="42.25926" lon="0.06024">
        <ele>734.7</ele>
        <time>2015-09-24T09:14:19Z</time>
      </trkpt>
      <trkpt lat="42.25922" lon="0.0602">
        <ele>733.9</ele>
        <time>2015-09-24T09:14:20Z</time>
      </trkpt>
      <trkpt lat="42.25919" lon="0.06018">
        <ele>733.4</ele>
        <time>2015-09-24T09:14:21Z</time>
      </trkpt>
      <trkpt lat="42.25916" lon="0.06017">
        <ele>732.8</ele>
        <time>2015-09-24T09:14:23Z</time>
      </trkpt>
      <trkpt lat="42.25913" lon="0.06018">
        <ele>732.5</ele>
        <time>2015-09-24T09:14:29Z</time>
      </trkpt>
      <trkpt lat="42.2591" lon="0.06016">
        <ele>731.9</ele>
        <time>2015-09-24T09:14:34Z</time>
      </trkpt>
      <trkpt lat="42.25908" lon="0.06012">
        <ele>731.6</ele>
        <time>2015-09-24T09:14:36Z</time>
      </trkpt>
      <trkpt lat="42.25909" lon="0.06006">
        <ele>731.5</ele>
        <time>2015-09-24T09:14:38Z</time>
      </trkpt>
      <trkpt lat="42.25911" lon="0.06001">
        <ele>731.4</ele>
        <time>2015-09-24T09:14:39Z</time>
      </trkpt>
      <trkpt lat="42.25912" lon="0.05997">
        <ele>731.4</ele>
        <time>2015-09-24T09:14:40Z</time>
      </trkpt>
      <trkpt lat="42.25913" lon="0.05993">
        <ele>731.4</ele>
        <time>2015-09-24T09:14:41Z</time>
      </trkpt>
      <trkpt lat="42.25914" lon="0.05988">
        <ele>731.4</ele>
        <time>2015-09-24T09:14:42Z</time>
      </trkpt>
      <trkpt lat="42.25915" lon="0.05984">
        <ele>731.3</ele>
        <time>2015-09-24T09:14:43Z</time>
      </trkpt>
      <trkpt lat="42.25915" lon="0.05979">
        <ele>731.2</ele>
        <time>2015-09-24T09:14:44Z</time>
      </trkpt>
      <trkpt lat="42.25916" lon="0.05975">
        <ele>731.1</ele>
        <time>2015-09-24T09:14:45Z</time>
      </trkpt>
      <trkpt lat="42.25917" lon="0.05972">
        <ele>731.1</ele>
        <time>2015-09-24T09:14:46Z</time>
      </trkpt>
      <trkpt lat="42.2592" lon="0.05968">
        <ele>731.3</ele>
        <time>2015-09-24T09:14:47Z</time>
      </trkpt>
      <trkpt lat="42.25923" lon="0.05965">
        <ele>731.5</ele>
        <time>2015-09-24T09:14:48Z</time>
      </trkpt>
      <trkpt lat="42.25925" lon="0.05962">
        <ele>731.6</ele>
        <time>2015-09-24T09:14:49Z</time>
      </trkpt>
      <trkpt lat="42.25927" lon="0.05959">
        <ele>731.7</ele>
        <time>2015-09-24T09:14:50Z</time>
      </trkpt>
      <trkpt lat="42.25928" lon="0.05955">
        <ele>731.6</ele>
        <time>2015-09-24T09:14:51Z</time>
      </trkpt>
      <trkpt lat="42.25925" lon="0.05951">
        <ele>731.2</ele>
        <time>2015-09-24T09:14:53Z</time>
      </trkpt>
      <trkpt lat="42.25922" lon="0.05948">
        <ele>730.8</ele>
        <time>2015-09-24T09:14:55Z</time>
      </trkpt>
      <trkpt lat="42.25919" lon="0.05945">
        <ele>730.5</ele>
        <time>2015-09-24T09:14:57Z</time>
      </trkpt>
      <trkpt lat="42.25916" lon="0.05942">
        <ele>730.2</ele>
        <time>2015-09-24T09:14:59Z</time>
      </trkpt>
      <trkpt lat="42.25914" lon="0.0594">
        <ele>729.9</ele>
        <time>2015-09-24T09:15:01Z</time>
      </trkpt>
      <trkpt lat="42.25911" lon="0.05937">
        <ele>729.6</ele>
        <time>2015-09-24T09:15:03Z</time>
      </trkpt>
      <trkpt lat="42.25908" lon="0.05935">
        <ele>729.2</ele>
        <time>2015-09-24T09:15:05Z</time>
      </trkpt>
      <trkpt lat="42.25904" lon="0.05932">
        <ele>728.8</ele>
        <time>2015-09-24T09:15:07Z</time>
      </trkpt>
      <trkpt lat="42.25899" lon="0.05929">
        <ele>728.3</ele>
        <time>2015-09-24T09:15:09Z</time>
      </trkpt>
      <trkpt lat="42.25895" lon="0.05924">
        <ele>727.9</ele>
        <time>2015-09-24T09:15:11Z</time>
      </trkpt>
      <trkpt lat="42.25893" lon="0.05921">
        <ele>727.7</ele>
        <time>2015-09-24T09:15:12Z</time>
      </trkpt>
      <trkpt lat="42.25889" lon="0.05918">
        <ele>727.3</ele>
        <time>2015-09-24T09:15:14Z</time>
      </trkpt>
      <trkpt lat="42.25884" lon="0.05916">
        <ele>726.8</ele>
        <time>2015-09-24T09:15:16Z</time>
      </trkpt>
      <trkpt lat="42.2588" lon="0.05916">
        <ele>726.4</ele>
        <time>2015-09-24T09:15:18Z</time>
      </trkpt>
      <trkpt lat="42.25875" lon="0.05919">
        <ele>726</ele>
        <time>2015-09-24T09:15:20Z</time>
      </trkpt>
      <trkpt lat="42.25872" lon="0.0592">
        <ele>725.8</ele>
        <time>2015-09-24T09:15:21Z</time>
      </trkpt>
      <trkpt lat="42.25869" lon="0.0592">
        <ele>725.7</ele>
        <time>2015-09-24T09:15:22Z</time>
      </trkpt>
      <trkpt lat="42.25865" lon="0.05922">
        <ele>725.5</ele>
        <time>2015-09-24T09:15:23Z</time>
      </trkpt>
      <trkpt lat="42.25863" lon="0.05923">
        <ele>725.3</ele>
        <time>2015-09-24T09:15:24Z</time>
      </trkpt>
      <trkpt lat="42.2586" lon="0.05924">
        <ele>725.2</ele>
        <time>2015-09-24T09:15:25Z</time>
      </trkpt>
      <trkpt lat="42.25857" lon="0.05925">
        <ele>725.1</ele>
        <time>2015-09-24T09:15:26Z</time>
      </trkpt>
      <trkpt lat="42.25854" lon="0.05926">
        <ele>724.9</ele>
        <time>2015-09-24T09:15:27Z</time>
      </trkpt>
      <trkpt lat="42.25851" lon="0.05927">
        <ele>724.7</ele>
        <time>2015-09-24T09:15:28Z</time>
      </trkpt>
      <trkpt lat="42.25846" lon="0.05927">
        <ele>724.5</ele>
        <time>2015-09-24T09:15:29Z</time>
      </trkpt>
      <trkpt lat="42.25838" lon="0.05928">
        <ele>724</ele>
        <time>2015-09-24T09:15:30Z</time>
      </trkpt>
      <trkpt lat="42.25832" lon="0.05929">
        <ele>723.8</ele>
        <time>2015-09-24T09:15:31Z</time>
      </trkpt>
      <trkpt lat="42.25826" lon="0.05929">
        <ele>723.4</ele>
        <time>2015-09-24T09:15:32Z</time>
      </trkpt>
      <trkpt lat="42.25819" lon="0.0593">
        <ele>723.1</ele>
        <time>2015-09-24T09:15:33Z</time>
      </trkpt>
      <trkpt lat="42.25813" lon="0.05929">
        <ele>722.8</ele>
        <time>2015-09-24T09:15:34Z</time>
      </trkpt>
      <trkpt lat="42.25807" lon="0.05929">
        <ele>722.4</ele>
        <time>2015-09-24T09:15:35Z</time>
      </trkpt>
      <trkpt lat="42.258" lon="0.05927">
        <ele>722.1</ele>
        <time>2015-09-24T09:15:36Z</time>
      </trkpt>
      <trkpt lat="42.25793" lon="0.05925">
        <ele>721.7</ele>
        <time>2015-09-24T09:15:37Z</time>
      </trkpt>
      <trkpt lat="42.25787" lon="0.05922">
        <ele>721</ele>
        <time>2015-09-24T09:15:38Z</time>
      </trkpt>
      <trkpt lat="42.25781" lon="0.05919">
        <ele>720.3</ele>
        <time>2015-09-24T09:15:39Z</time>
      </trkpt>
      <trkpt lat="42.25774" lon="0.05916">
        <ele>719.5</ele>
        <time>2015-09-24T09:15:40Z</time>
      </trkpt>
      <trkpt lat="42.25769" lon="0.05912">
        <ele>718.9</ele>
        <time>2015-09-24T09:15:41Z</time>
      </trkpt>
      <trkpt lat="42.25763" lon="0.05909">
        <ele>718.2</ele>
        <time>2015-09-24T09:15:42Z</time>
      </trkpt>
      <trkpt lat="42.25756" lon="0.05906">
        <ele>717.5</ele>
        <time>2015-09-24T09:15:43Z</time>
      </trkpt>
      <trkpt lat="42.2575" lon="0.05903">
        <ele>716.8</ele>
        <time>2015-09-24T09:15:44Z</time>
      </trkpt>
      <trkpt lat="42.25744" lon="0.059">
        <ele>716.2</ele>
        <time>2015-09-24T09:15:45Z</time>
      </trkpt>
      <trkpt lat="42.25739" lon="0.05897">
        <ele>715.7</ele>
        <time>2015-09-24T09:15:46Z</time>
      </trkpt>
      <trkpt lat="42.25733" lon="0.05893">
        <ele>715.1</ele>
        <time>2015-09-24T09:15:47Z</time>
      </trkpt>
      <trkpt lat="42.25727" lon="0.0589">
        <ele>714.6</ele>
        <time>2015-09-24T09:15:48Z</time>
      </trkpt>
      <trkpt lat="42.25722" lon="0.05887">
        <ele>714.1</ele>
        <time>2015-09-24T09:15:49Z</time>
      </trkpt>
      <trkpt lat="42.25717" lon="0.05886">
        <ele>713.6</ele>
        <time>2015-09-24T09:15:50Z</time>
      </trkpt>
      <trkpt lat="42.25712" lon="0.05886">
        <ele>713.2</ele>
        <time>2015-09-24T09:15:51Z</time>
      </trkpt>
      <trkpt lat="42.25709" lon="0.05884">
        <ele>712.8</ele>
        <time>2015-09-24T09:15:52Z</time>
      </trkpt>
      <trkpt lat="42.25705" lon="0.05881">
        <ele>712.4</ele>
        <time>2015-09-24T09:15:53Z</time>
      </trkpt>
      <trkpt lat="42.25702" lon="0.05878">
        <ele>712</ele>
        <time>2015-09-24T09:15:54Z</time>
      </trkpt>
      <trkpt lat="42.25698" lon="0.05874">
        <ele>711.5</ele>
        <time>2015-09-24T09:15:55Z</time>
      </trkpt>
      <trkpt lat="42.25695" lon="0.05872">
        <ele>710.7</ele>
        <time>2015-09-24T09:15:56Z</time>
      </trkpt>
      <trkpt lat="42.25691" lon="0.05869">
        <ele>709.9</ele>
        <time>2015-09-24T09:15:57Z</time>
      </trkpt>
      <trkpt lat="42.25688" lon="0.05866">
        <ele>709.2</ele>
        <time>2015-09-24T09:15:59Z</time>
      </trkpt>
      <trkpt lat="42.25686" lon="0.05863">
        <ele>708.6</ele>
        <time>2015-09-24T09:16:02Z</time>
      </trkpt>
      <trkpt lat="42.25683" lon="0.05861">
        <ele>708</ele>
        <time>2015-09-24T09:16:04Z</time>
      </trkpt>
      <trkpt lat="42.2568" lon="0.05858">
        <ele>707.3</ele>
        <time>2015-09-24T09:16:07Z</time>
      </trkpt>
      <trkpt lat="42.25678" lon="0.05852">
        <ele>706.5</ele>
        <time>2015-09-24T09:16:10Z</time>
      </trkpt>
      <trkpt lat="42.25677" lon="0.05849">
        <ele>705.9</ele>
        <time>2015-09-24T09:16:11Z</time>
      </trkpt>
      <trkpt lat="42.25675" lon="0.05846">
        <ele>705.4</ele>
        <time>2015-09-24T09:16:12Z</time>
      </trkpt>
      <trkpt lat="42.25673" lon="0.05842">
        <ele>704.8</ele>
        <time>2015-09-24T09:16:13Z</time>
      </trkpt>
      <trkpt lat="42.25671" lon="0.05839">
        <ele>704.2</ele>
        <time>2015-09-24T09:16:14Z</time>
      </trkpt>
      <trkpt lat="42.25669" lon="0.05836">
        <ele>703.6</ele>
        <time>2015-09-24T09:16:15Z</time>
      </trkpt>
      <trkpt lat="42.25666" lon="0.05834">
        <ele>703</ele>
        <time>2015-09-24T09:16:16Z</time>
      </trkpt>
      <trkpt lat="42.25664" lon="0.05831">
        <ele>702.4</ele>
        <time>2015-09-24T09:16:17Z</time>
      </trkpt>
      <trkpt lat="42.25662" lon="0.05828">
        <ele>701.8</ele>
        <time>2015-09-24T09:16:18Z</time>
      </trkpt>
      <trkpt lat="42.2566" lon="0.05824">
        <ele>701.1</ele>
        <time>2015-09-24T09:16:19Z</time>
      </trkpt>
      <trkpt lat="42.25657" lon="0.0582">
        <ele>700.4</ele>
        <time>2015-09-24T09:16:20Z</time>
      </trkpt>
      <trkpt lat="42.25655" lon="0.05817">
        <ele>699.7</ele>
        <time>2015-09-24T09:16:21Z</time>
      </trkpt>
      <trkpt lat="42.25652" lon="0.05814">
        <ele>699</ele>
        <time>2015-09-24T09:16:22Z</time>
      </trkpt>
      <trkpt lat="42.25649" lon="0.05812">
        <ele>698.4</ele>
        <time>2015-09-24T09:16:23Z</time>
      </trkpt>
      <trkpt lat="42.25646" lon="0.05811">
        <ele>697.9</ele>
        <time>2015-09-24T09:16:24Z</time>
      </trkpt>
      <trkpt lat="42.25644" lon="0.05809">
        <ele>697.3</ele>
        <time>2015-09-24T09:16:26Z</time>
      </trkpt>
      <trkpt lat="42.25641" lon="0.05806">
        <ele>696.6</ele>
        <time>2015-09-24T09:16:28Z</time>
      </trkpt>
      <trkpt lat="42.25638" lon="0.05803">
        <ele>695.9</ele>
        <time>2015-09-24T09:16:30Z</time>
      </trkpt>
      <trkpt lat="42.25635" lon="0.05799">
        <ele>695.2</ele>
        <time>2015-09-24T09:16:32Z</time>
      </trkpt>
      <trkpt lat="42.25633" lon="0.05796">
        <ele>694.6</ele>
        <time>2015-09-24T09:16:34Z</time>
      </trkpt>
      <trkpt lat="42.25631" lon="0.05793">
        <ele>693.9</ele>
        <time>2015-09-24T09:16:37Z</time>
      </trkpt>
      <trkpt lat="42.25628" lon="0.05791">
        <ele>693.3</ele>
        <time>2015-09-24T09:16:41Z</time>
      </trkpt>
      <trkpt lat="42.25627" lon="0.05786">
        <ele>692.8</ele>
        <time>2015-09-24T09:16:44Z</time>
      </trkpt>
      <trkpt lat="42.25626" lon="0.05782">
        <ele>692.2</ele>
        <time>2015-09-24T09:16:47Z</time>
      </trkpt>
      <trkpt lat="42.25625" lon="0.05778">
        <ele>691.7</ele>
        <time>2015-09-24T09:16:50Z</time>
      </trkpt>
      <trkpt lat="42.25624" lon="0.05774">
        <ele>691.2</ele>
        <time>2015-09-24T09:16:53Z</time>
      </trkpt>
      <trkpt lat="42.25622" lon="0.05771">
        <ele>690.6</ele>
        <time>2015-09-24T09:16:56Z</time>
      </trkpt>
      <trkpt lat="42.25621" lon="0.05774">
        <ele>690.5</ele>
        <time>2015-09-24T09:17:02Z</time>
      </trkpt>
      <trkpt lat="42.25618" lon="0.05774">
        <ele>690.1</ele>
        <time>2015-09-24T09:17:07Z</time>
      </trkpt>
      <trkpt lat="42.25616" lon="0.05776">
        <ele>690</ele>
        <time>2015-09-24T09:17:11Z</time>
      </trkpt>
      <trkpt lat="42.25613" lon="0.05777">
        <ele>689.5</ele>
        <time>2015-09-24T09:17:14Z</time>
      </trkpt>
      <trkpt lat="42.25609" lon="0.05777">
        <ele>688.9</ele>
        <time>2015-09-24T09:17:17Z</time>
      </trkpt>
      <trkpt lat="42.25606" lon="0.05778">
        <ele>688.4</ele>
        <time>2015-09-24T09:17:20Z</time>
      </trkpt>
      <trkpt lat="42.25603" lon="0.05779">
        <ele>688</ele>
        <time>2015-09-24T09:17:22Z</time>
      </trkpt>
      <trkpt lat="42.25599" lon="0.0578">
        <ele>687.4</ele>
        <time>2015-09-24T09:17:24Z</time>
      </trkpt>
      <trkpt lat="42.25595" lon="0.05781">
        <ele>686.7</ele>
        <time>2015-09-24T09:17:27Z</time>
      </trkpt>
      <trkpt lat="42.25592" lon="0.05781">
        <ele>686.2</ele>
        <time>2015-09-24T09:17:29Z</time>
      </trkpt>
      <trkpt lat="42.25588" lon="0.05782">
        <ele>685.6</ele>
        <time>2015-09-24T09:17:31Z</time>
      </trkpt>
      <trkpt lat="42.25584" lon="0.05781">
        <ele>684.8</ele>
        <time>2015-09-24T09:17:33Z</time>
      </trkpt>
      <trkpt lat="42.25579" lon="0.05782">
        <ele>684</ele>
        <time>2015-09-24T09:17:35Z</time>
      </trkpt>
      <trkpt lat="42.25575" lon="0.05786">
        <ele>683.3</ele>
        <time>2015-09-24T09:17:37Z</time>
      </trkpt>
      <trkpt lat="42.25573" lon="0.05788">
        <ele>682.9</ele>
        <time>2015-09-24T09:17:38Z</time>
      </trkpt>
      <trkpt lat="42.2557" lon="0.0579">
        <ele>682.4</ele>
        <time>2015-09-24T09:17:39Z</time>
      </trkpt>
      <trkpt lat="42.25567" lon="0.05791">
        <ele>681.9</ele>
        <time>2015-09-24T09:17:40Z</time>
      </trkpt>
      <trkpt lat="42.25564" lon="0.05792">
        <ele>681.2</ele>
        <time>2015-09-24T09:17:41Z</time>
      </trkpt>
      <trkpt lat="42.2556" lon="0.05792">
        <ele>680.5</ele>
        <time>2015-09-24T09:17:42Z</time>
      </trkpt>
      <trkpt lat="42.25556" lon="0.05792">
        <ele>679.8</ele>
        <time>2015-09-24T09:17:43Z</time>
      </trkpt>
      <trkpt lat="42.25553" lon="0.05792">
        <ele>679.1</ele>
        <time>2015-09-24T09:17:44Z</time>
      </trkpt>
      <trkpt lat="42.2555" lon="0.05791">
        <ele>678.6</ele>
        <time>2015-09-24T09:17:45Z</time>
      </trkpt>
      <trkpt lat="42.25548" lon="0.05789">
        <ele>678.2</ele>
        <time>2015-09-24T09:17:48Z</time>
      </trkpt>
      <trkpt lat="42.25548" lon="0.05781">
        <ele>678.4</ele>
        <time>2015-09-24T09:18:31Z</time>
      </trkpt>
      <trkpt lat="42.25542" lon="0.05776">
        <ele>677.6</ele>
        <time>2015-09-24T09:19:23Z</time>
      </trkpt>
      <trkpt lat="42.25538" lon="0.05777">
        <ele>677.7</ele>
        <time>2015-09-24T09:19:25Z</time>
      </trkpt>
      <trkpt lat="42.25534" lon="0.05777">
        <ele>677.9</ele>
        <time>2015-09-24T09:19:27Z</time>
      </trkpt>
      <trkpt lat="42.2553" lon="0.05777">
        <ele>678.1</ele>
        <time>2015-09-24T09:19:29Z</time>
      </trkpt>
      <trkpt lat="42.25526" lon="0.05777">
        <ele>678.2</ele>
        <time>2015-09-24T09:19:31Z</time>
      </trkpt>
      <trkpt lat="42.25523" lon="0.05778">
        <ele>678.3</ele>
        <time>2015-09-24T09:19:33Z</time>
      </trkpt>
      <trkpt lat="42.25521" lon="0.05779">
        <ele>678.4</ele>
        <time>2015-09-24T09:19:43Z</time>
      </trkpt>
      <trkpt lat="42.25518" lon="0.05777">
        <ele>678.7</ele>
        <time>2015-09-24T09:19:49Z</time>
      </trkpt>
      <trkpt lat="42.25515" lon="0.05777">
        <ele>678.8</ele>
        <time>2015-09-24T09:19:53Z</time>
      </trkpt>
      <trkpt lat="42.25514" lon="0.05781">
        <ele>678.6</ele>
        <time>2015-09-24T09:19:56Z</time>
      </trkpt>
      <trkpt lat="42.25513" lon="0.05785">
        <ele>678.4</ele>
        <time>2015-09-24T09:19:59Z</time>
      </trkpt>
      <trkpt lat="42.25511" lon="0.05787">
        <ele>678.4</ele>
        <time>2015-09-24T09:20:01Z</time>
      </trkpt>
      <trkpt lat="42.25509" lon="0.0579">
        <ele>678.3</ele>
        <time>2015-09-24T09:20:03Z</time>
      </trkpt>
      <trkpt lat="42.25506" lon="0.05791">
        <ele>678.3</ele>
        <time>2015-09-24T09:20:05Z</time>
      </trkpt>
      <trkpt lat="42.25503" lon="0.05791">
        <ele>678.5</ele>
        <time>2015-09-24T09:20:06Z</time>
      </trkpt>
      <trkpt lat="42.25499" lon="0.05789">
        <ele>678.7</ele>
        <time>2015-09-24T09:20:07Z</time>
      </trkpt>
      <trkpt lat="42.25496" lon="0.05788">
        <ele>678.9</ele>
        <time>2015-09-24T09:20:08Z</time>
      </trkpt>
      <trkpt lat="42.25492" lon="0.05786">
        <ele>679.2</ele>
        <time>2015-09-24T09:20:10Z</time>
      </trkpt>
      <trkpt lat="42.25496" lon="0.05786">
        <ele>679.1</ele>
        <time>2015-09-24T09:20:46Z</time>
      </trkpt>
      <trkpt lat="42.25499" lon="0.05785">
        <ele>679</ele>
        <time>2015-09-24T09:20:50Z</time>
      </trkpt>
      <trkpt lat="42.25501" lon="0.05782">
        <ele>679.1</ele>
        <time>2015-09-24T09:20:54Z</time>
      </trkpt>
      <trkpt lat="42.25496" lon="0.05785">
        <ele>679.1</ele>
        <time>2015-09-24T09:21:58Z</time>
      </trkpt>
      <trkpt lat="42.25494" lon="0.05788">
        <ele>679</ele>
        <time>2015-09-24T09:22:03Z</time>
      </trkpt>
      <trkpt lat="42.25491" lon="0.05787">
        <ele>679.2</ele>
        <time>2015-09-24T09:22:26Z</time>
      </trkpt>
      <trkpt lat="42.25493" lon="0.05784">
        <ele>679.3</ele>
        <time>2015-09-24T09:22:30Z</time>
      </trkpt>
      <trkpt lat="42.25495" lon="0.05786">
        <ele>679.1</ele>
        <time>2015-09-24T09:23:15Z</time>
      </trkpt>
      <trkpt lat="42.25498" lon="0.05788">
        <ele>678.8</ele>
        <time>2015-09-24T09:23:18Z</time>
      </trkpt>
      <trkpt lat="42.25501" lon="0.0579">
        <ele>678.6</ele>
        <time>2015-09-24T09:23:20Z</time>
      </trkpt>
      <trkpt lat="42.25501" lon="0.05795">
        <ele>678.5</ele>
        <time>2015-09-24T09:23:22Z</time>
      </trkpt>
      <trkpt lat="42.25496" lon="0.05803">
        <ele>678.7</ele>
        <time>2015-09-24T09:23:24Z</time>
      </trkpt>
      <trkpt lat="42.25492" lon="0.05809">
        <ele>678.8</ele>
        <time>2015-09-24T09:23:25Z</time>
      </trkpt>
      <trkpt lat="42.25487" lon="0.05817">
        <ele>678.9</ele>
        <time>2015-09-24T09:23:26Z</time>
      </trkpt>
      <trkpt lat="42.25483" lon="0.05824">
        <ele>678.9</ele>
        <time>2015-09-24T09:23:27Z</time>
      </trkpt>
      <trkpt lat="42.25479" lon="0.05832">
        <ele>678.8</ele>
        <time>2015-09-24T09:23:28Z</time>
      </trkpt>
      <trkpt lat="42.25477" lon="0.05842">
        <ele>678.6</ele>
        <time>2015-09-24T09:23:29Z</time>
      </trkpt>
      <trkpt lat="42.25475" lon="0.05852">
        <ele>678.4</ele>
        <time>2015-09-24T09:23:30Z</time>
      </trkpt>
      <trkpt lat="42.25473" lon="0.05862">
        <ele>678.1</ele>
        <time>2015-09-24T09:23:31Z</time>
      </trkpt>
      <trkpt lat="42.25471" lon="0.05872">
        <ele>677.8</ele>
        <time>2015-09-24T09:23:32Z</time>
      </trkpt>
      <trkpt lat="42.25467" lon="0.05881">
        <ele>677.3</ele>
        <time>2015-09-24T09:23:33Z</time>
      </trkpt>
      <trkpt lat="42.25462" lon="0.0589">
        <ele>676.8</ele>
        <time>2015-09-24T09:23:34Z</time>
      </trkpt>
      <trkpt lat="42.25456" lon="0.05897">
        <ele>676.3</ele>
        <time>2015-09-24T09:23:35Z</time>
      </trkpt>
      <trkpt lat="42.2545" lon="0.05904">
        <ele>676.4</ele>
        <time>2015-09-24T09:23:36Z</time>
      </trkpt>
      <trkpt lat="42.25444" lon="0.05908">
        <ele>676.5</ele>
        <time>2015-09-24T09:23:37Z</time>
      </trkpt>
      <trkpt lat="42.25439" lon="0.05912">
        <ele>676.5</ele>
        <time>2015-09-24T09:23:38Z</time>
      </trkpt>
      <trkpt lat="42.25434" lon="0.05915">
        <ele>676.5</ele>
        <time>2015-09-24T09:23:39Z</time>
      </trkpt>
      <trkpt lat="42.25429" lon="0.05917">
        <ele>676.6</ele>
        <time>2015-09-24T09:23:40Z</time>
      </trkpt>
      <trkpt lat="42.25424" lon="0.05918">
        <ele>676.7</ele>
        <time>2015-09-24T09:23:41Z</time>
      </trkpt>
      <trkpt lat="42.25421" lon="0.05917">
        <ele>676.8</ele>
        <time>2015-09-24T09:23:42Z</time>
      </trkpt>
      <trkpt lat="42.25417" lon="0.05915">
        <ele>677.1</ele>
        <time>2015-09-24T09:23:43Z</time>
      </trkpt>
      <trkpt lat="42.25415" lon="0.05912">
        <ele>677.5</ele>
        <time>2015-09-24T09:23:44Z</time>
      </trkpt>
      <trkpt lat="42.25414" lon="0.05909">
        <ele>677.8</ele>
        <time>2015-09-24T09:23:45Z</time>
      </trkpt>
      <trkpt lat="42.25414" lon="0.05903">
        <ele>678.4</ele>
        <time>2015-09-24T09:23:47Z</time>
      </trkpt>
      <trkpt lat="42.25415" lon="0.05898">
        <ele>678.7</ele>
        <time>2015-09-24T09:23:49Z</time>
      </trkpt>
      <trkpt lat="42.25417" lon="0.05893">
        <ele>679</ele>
        <time>2015-09-24T09:23:51Z</time>
      </trkpt>
      <trkpt lat="42.25419" lon="0.05888">
        <ele>679.3</ele>
        <time>2015-09-24T09:23:53Z</time>
      </trkpt>
      <trkpt lat="42.2542" lon="0.05883">
        <ele>679.5</ele>
        <time>2015-09-24T09:23:55Z</time>
      </trkpt>
      <trkpt lat="42.25422" lon="0.05879">
        <ele>679.8</ele>
        <time>2015-09-24T09:23:57Z</time>
      </trkpt>
      <trkpt lat="42.25423" lon="0.05874">
        <ele>680.1</ele>
        <time>2015-09-24T09:23:59Z</time>
      </trkpt>
      <trkpt lat="42.25423" lon="0.05869">
        <ele>680.4</ele>
        <time>2015-09-24T09:24:01Z</time>
      </trkpt>
      <trkpt lat="42.25424" lon="0.05864">
        <ele>680.6</ele>
        <time>2015-09-24T09:24:03Z</time>
      </trkpt>
      <trkpt lat="42.25424" lon="0.0586">
        <ele>680.9</ele>
        <time>2015-09-24T09:24:05Z</time>
      </trkpt>
      <trkpt lat="42.25424" lon="0.05855">
        <ele>681.3</ele>
        <time>2015-09-24T09:24:07Z</time>
      </trkpt>
      <trkpt lat="42.25424" lon="0.05851">
        <ele>681.5</ele>
        <time>2015-09-24T09:24:09Z</time>
      </trkpt>
      <trkpt lat="42.25424" lon="0.05847">
        <ele>681.9</ele>
        <time>2015-09-24T09:24:11Z</time>
      </trkpt>
      <trkpt lat="42.25423" lon="0.05843">
        <ele>682.3</ele>
        <time>2015-09-24T09:24:13Z</time>
      </trkpt>
      <trkpt lat="42.25423" lon="0.05839">
        <ele>682.6</ele>
        <time>2015-09-24T09:24:15Z</time>
      </trkpt>
      <trkpt lat="42.25422" lon="0.05834">
        <ele>683</ele>
        <time>2015-09-24T09:24:17Z</time>
      </trkpt>
      <trkpt lat="42.25422" lon="0.0583">
        <ele>683.3</ele>
        <time>2015-09-24T09:24:19Z</time>
      </trkpt>
      <trkpt lat="42.25421" lon="0.05826">
        <ele>683.7</ele>
        <time>2015-09-24T09:24:21Z</time>
      </trkpt>
      <trkpt lat="42.25421" lon="0.05822">
        <ele>684.1</ele>
        <time>2015-09-24T09:24:23Z</time>
      </trkpt>
      <trkpt lat="42.2542" lon="0.05818">
        <ele>684.6</ele>
        <time>2015-09-24T09:24:25Z</time>
      </trkpt>
      <trkpt lat="42.25418" lon="0.05813">
        <ele>685.1</ele>
        <time>2015-09-24T09:24:27Z</time>
      </trkpt>
      <trkpt lat="42.25416" lon="0.0581">
        <ele>685.7</ele>
        <time>2015-09-24T09:24:29Z</time>
      </trkpt>
      <trkpt lat="42.25414" lon="0.05806">
        <ele>686.3</ele>
        <time>2015-09-24T09:24:31Z</time>
      </trkpt>
      <trkpt lat="42.25411" lon="0.05803">
        <ele>687</ele>
        <time>2015-09-24T09:24:33Z</time>
      </trkpt>
      <trkpt lat="42.25408" lon="0.05799">
        <ele>687.7</ele>
        <time>2015-09-24T09:24:35Z</time>
      </trkpt>
      <trkpt lat="42.25406" lon="0.05796">
        <ele>688.5</ele>
        <time>2015-09-24T09:24:37Z</time>
      </trkpt>
      <trkpt lat="42.25403" lon="0.05792">
        <ele>689.2</ele>
        <time>2015-09-24T09:24:39Z</time>
      </trkpt>
      <trkpt lat="42.25401" lon="0.05788">
        <ele>689.8</ele>
        <time>2015-09-24T09:24:41Z</time>
      </trkpt>
      <trkpt lat="42.25399" lon="0.05785">
        <ele>690.3</ele>
        <time>2015-09-24T09:24:43Z</time>
      </trkpt>
      <trkpt lat="42.25396" lon="0.05782">
        <ele>690.8</ele>
        <time>2015-09-24T09:24:45Z</time>
      </trkpt>
      <trkpt lat="42.25394" lon="0.05778">
        <ele>691.3</ele>
        <time>2015-09-24T09:24:47Z</time>
      </trkpt>
      <trkpt lat="42.25392" lon="0.05775">
        <ele>691.8</ele>
        <time>2015-09-24T09:24:49Z</time>
      </trkpt>
      <trkpt lat="42.2539" lon="0.05771">
        <ele>692.2</ele>
        <time>2015-09-24T09:24:51Z</time>
      </trkpt>
      <trkpt lat="42.25389" lon="0.05767">
        <ele>692.6</ele>
        <time>2015-09-24T09:24:53Z</time>
      </trkpt>
      <trkpt lat="42.25387" lon="0.05763">
        <ele>693</ele>
        <time>2015-09-24T09:24:55Z</time>
      </trkpt>
      <trkpt lat="42.25384" lon="0.05761">
        <ele>693.5</ele>
        <time>2015-09-24T09:24:57Z</time>
      </trkpt>
      <trkpt lat="42.25381" lon="0.05758">
        <ele>693.9</ele>
        <time>2015-09-24T09:24:59Z</time>
      </trkpt>
      <trkpt lat="42.25378" lon="0.05756">
        <ele>694.4</ele>
        <time>2015-09-24T09:25:01Z</time>
      </trkpt>
      <trkpt lat="42.25375" lon="0.05754">
        <ele>694.8</ele>
        <time>2015-09-24T09:25:03Z</time>
      </trkpt>
      <trkpt lat="42.25373" lon="0.05752">
        <ele>695.1</ele>
        <time>2015-09-24T09:25:05Z</time>
      </trkpt>
      <trkpt lat="42.2537" lon="0.0575">
        <ele>695.3</ele>
        <time>2015-09-24T09:25:07Z</time>
      </trkpt>
      <trkpt lat="42.25368" lon="0.05748">
        <ele>695.5</ele>
        <time>2015-09-24T09:25:09Z</time>
      </trkpt>
      <trkpt lat="42.25365" lon="0.05746">
        <ele>695.7</ele>
        <time>2015-09-24T09:25:11Z</time>
      </trkpt>
      <trkpt lat="42.25362" lon="0.05744">
        <ele>695.8</ele>
        <time>2015-09-24T09:25:13Z</time>
      </trkpt>
      <trkpt lat="42.2536" lon="0.05743">
        <ele>696</ele>
        <time>2015-09-24T09:25:15Z</time>
      </trkpt>
      <trkpt lat="42.25356" lon="0.0574">
        <ele>696.3</ele>
        <time>2015-09-24T09:25:18Z</time>
      </trkpt>
      <trkpt lat="42.25354" lon="0.05737">
        <ele>696.5</ele>
        <time>2015-09-24T09:25:21Z</time>
      </trkpt>
      <trkpt lat="42.25351" lon="0.05735">
        <ele>696.7</ele>
        <time>2015-09-24T09:25:23Z</time>
      </trkpt>
      <trkpt lat="42.25348" lon="0.05733">
        <ele>697</ele>
        <time>2015-09-24T09:25:26Z</time>
      </trkpt>
      <trkpt lat="42.25345" lon="0.05729">
        <ele>697.2</ele>
        <time>2015-09-24T09:25:29Z</time>
      </trkpt>
      <trkpt lat="42.25342" lon="0.05726">
        <ele>697.5</ele>
        <time>2015-09-24T09:25:32Z</time>
      </trkpt>
      <trkpt lat="42.25339" lon="0.05723">
        <ele>697.7</ele>
        <time>2015-09-24T09:25:35Z</time>
      </trkpt>
      <trkpt lat="42.25336" lon="0.0572">
        <ele>698</ele>
        <time>2015-09-24T09:25:38Z</time>
      </trkpt>
      <trkpt lat="42.25333" lon="0.05717">
        <ele>698.3</ele>
        <time>2015-09-24T09:25:41Z</time>
      </trkpt>
      <trkpt lat="42.2533" lon="0.05713">
        <ele>698.5</ele>
        <time>2015-09-24T09:25:44Z</time>
      </trkpt>
      <trkpt lat="42.25327" lon="0.0571">
        <ele>698.8</ele>
        <time>2015-09-24T09:25:47Z</time>
      </trkpt>
      <trkpt lat="42.25324" lon="0.05707">
        <ele>699.1</ele>
        <time>2015-09-24T09:25:50Z</time>
      </trkpt>
      <trkpt lat="42.25322" lon="0.05705">
        <ele>699.4</ele>
        <time>2015-09-24T09:25:52Z</time>
      </trkpt>
      <trkpt lat="42.2532" lon="0.05702">
        <ele>699.6</ele>
        <time>2015-09-24T09:25:54Z</time>
      </trkpt>
      <trkpt lat="42.25317" lon="0.057">
        <ele>699.9</ele>
        <time>2015-09-24T09:25:56Z</time>
      </trkpt>
      <trkpt lat="42.25315" lon="0.05698">
        <ele>700.2</ele>
        <time>2015-09-24T09:25:58Z</time>
      </trkpt>
      <trkpt lat="42.25312" lon="0.05696">
        <ele>700.4</ele>
        <time>2015-09-24T09:26:01Z</time>
      </trkpt>
      <trkpt lat="42.25306" lon="0.05694">
        <ele>700.8</ele>
        <time>2015-09-24T09:27:26Z</time>
      </trkpt>
      <trkpt lat="42.25304" lon="0.05693">
        <ele>701.1</ele>
        <time>2015-09-24T09:27:28Z</time>
      </trkpt>
      <trkpt lat="42.253" lon="0.05692">
        <ele>701.3</ele>
        <time>2015-09-24T09:27:30Z</time>
      </trkpt>
      <trkpt lat="42.25295" lon="0.05691">
        <ele>701.6</ele>
        <time>2015-09-24T09:27:32Z</time>
      </trkpt>
      <trkpt lat="42.2529" lon="0.0569">
        <ele>701.8</ele>
        <time>2015-09-24T09:27:34Z</time>
      </trkpt>
      <trkpt lat="42.25287" lon="0.05689">
        <ele>701.7</ele>
        <time>2015-09-24T09:27:35Z</time>
      </trkpt>
      <trkpt lat="42.25284" lon="0.05688">
        <ele>701.6</ele>
        <time>2015-09-24T09:27:36Z</time>
      </trkpt>
      <trkpt lat="42.2528" lon="0.05686">
        <ele>701.5</ele>
        <time>2015-09-24T09:27:37Z</time>
      </trkpt>
      <trkpt lat="42.25276" lon="0.05685">
        <ele>701.4</ele>
        <time>2015-09-24T09:27:38Z</time>
      </trkpt>
      <trkpt lat="42.25272" lon="0.05683">
        <ele>701.3</ele>
        <time>2015-09-24T09:27:39Z</time>
      </trkpt>
      <trkpt lat="42.25268" lon="0.05681">
        <ele>701.3</ele>
        <time>2015-09-24T09:27:40Z</time>
      </trkpt>
      <trkpt lat="42.25264" lon="0.05678">
        <ele>701.2</ele>
        <time>2015-09-24T09:27:41Z</time>
      </trkpt>
      <trkpt lat="42.25258" lon="0.05674">
        <ele>701.2</ele>
        <time>2015-09-24T09:27:42Z</time>
      </trkpt>
      <trkpt lat="42.25252" lon="0.05668">
        <ele>701.3</ele>
        <time>2015-09-24T09:27:43Z</time>
      </trkpt>
      <trkpt lat="42.25247" lon="0.05662">
        <ele>701.4</ele>
        <time>2015-09-24T09:27:44Z</time>
      </trkpt>
      <trkpt lat="42.25241" lon="0.05655">
        <ele>701.5</ele>
        <time>2015-09-24T09:27:45Z</time>
      </trkpt>
      <trkpt lat="42.25236" lon="0.05649">
        <ele>701.7</ele>
        <time>2015-09-24T09:27:46Z</time>
      </trkpt>
      <trkpt lat="42.25231" lon="0.05643">
        <ele>701.8</ele>
        <time>2015-09-24T09:27:47Z</time>
      </trkpt>
      <trkpt lat="42.25225" lon="0.05636">
        <ele>702</ele>
        <time>2015-09-24T09:27:48Z</time>
      </trkpt>
      <trkpt lat="42.2522" lon="0.05629">
        <ele>702.2</ele>
        <time>2015-09-24T09:27:49Z</time>
      </trkpt>
      <trkpt lat="42.25214" lon="0.05624">
        <ele>702.3</ele>
        <time>2015-09-24T09:27:50Z</time>
      </trkpt>
      <trkpt lat="42.25207" lon="0.0562">
        <ele>702.2</ele>
        <time>2015-09-24T09:27:51Z</time>
      </trkpt>
      <trkpt lat="42.25201" lon="0.05617">
        <ele>702.3</ele>
        <time>2015-09-24T09:27:52Z</time>
      </trkpt>
      <trkpt lat="42.25194" lon="0.05614">
        <ele>702.3</ele>
        <time>2015-09-24T09:27:53Z</time>
      </trkpt>
      <trkpt lat="42.25188" lon="0.05612">
        <ele>702.3</ele>
        <time>2015-09-24T09:27:54Z</time>
      </trkpt>
      <trkpt lat="42.25182" lon="0.0561">
        <ele>702.2</ele>
        <time>2015-09-24T09:27:55Z</time>
      </trkpt>
      <trkpt lat="42.25177" lon="0.05607">
        <ele>702.2</ele>
        <time>2015-09-24T09:27:56Z</time>
      </trkpt>
      <trkpt lat="42.25172" lon="0.05605">
        <ele>702.2</ele>
        <time>2015-09-24T09:27:57Z</time>
      </trkpt>
      <trkpt lat="42.25167" lon="0.05602">
        <ele>702.2</ele>
        <time>2015-09-24T09:27:58Z</time>
      </trkpt>
      <trkpt lat="42.25163" lon="0.05599">
        <ele>702.2</ele>
        <time>2015-09-24T09:27:59Z</time>
      </trkpt>
      <trkpt lat="42.25159" lon="0.05597">
        <ele>702.1</ele>
        <time>2015-09-24T09:28:00Z</time>
      </trkpt>
      <trkpt lat="42.25155" lon="0.05596">
        <ele>702.1</ele>
        <time>2015-09-24T09:28:01Z</time>
      </trkpt>
      <trkpt lat="42.25151" lon="0.05594">
        <ele>702</ele>
        <time>2015-09-24T09:28:02Z</time>
      </trkpt>
      <trkpt lat="42.25147" lon="0.05593">
        <ele>701.9</ele>
        <time>2015-09-24T09:28:03Z</time>
      </trkpt>
      <trkpt lat="42.25143" lon="0.05592">
        <ele>701.9</ele>
        <time>2015-09-24T09:28:04Z</time>
      </trkpt>
      <trkpt lat="42.25139" lon="0.0559">
        <ele>701.8</ele>
        <time>2015-09-24T09:28:05Z</time>
      </trkpt>
      <trkpt lat="42.25136" lon="0.05589">
        <ele>701.7</ele>
        <time>2015-09-24T09:28:06Z</time>
      </trkpt>
      <trkpt lat="42.25132" lon="0.05587">
        <ele>701.6</ele>
        <time>2015-09-24T09:28:07Z</time>
      </trkpt>
      <trkpt lat="42.25128" lon="0.05586">
        <ele>701.5</ele>
        <time>2015-09-24T09:28:08Z</time>
      </trkpt>
      <trkpt lat="42.25123" lon="0.05584">
        <ele>701.5</ele>
        <time>2015-09-24T09:28:09Z</time>
      </trkpt>
      <trkpt lat="42.25119" lon="0.05582">
        <ele>701.4</ele>
        <time>2015-09-24T09:28:10Z</time>
      </trkpt>
      <trkpt lat="42.25114" lon="0.0558">
        <ele>701.4</ele>
        <time>2015-09-24T09:28:11Z</time>
      </trkpt>
      <trkpt lat="42.25109" lon="0.05579">
        <ele>701.4</ele>
        <time>2015-09-24T09:28:12Z</time>
      </trkpt>
      <trkpt lat="42.25105" lon="0.05578">
        <ele>701.3</ele>
        <time>2015-09-24T09:28:13Z</time>
      </trkpt>
      <trkpt lat="42.25101" lon="0.05577">
        <ele>701.3</ele>
        <time>2015-09-24T09:28:14Z</time>
      </trkpt>
      <trkpt lat="42.25098" lon="0.05574">
        <ele>701.3</ele>
        <time>2015-09-24T09:28:15Z</time>
      </trkpt>
      <trkpt lat="42.25094" lon="0.05572">
        <ele>701.3</ele>
        <time>2015-09-24T09:28:16Z</time>
      </trkpt>
      <trkpt lat="42.25091" lon="0.05569">
        <ele>701.3</ele>
        <time>2015-09-24T09:28:17Z</time>
      </trkpt>
      <trkpt lat="42.25088" lon="0.05566">
        <ele>701.3</ele>
        <time>2015-09-24T09:28:18Z</time>
      </trkpt>
      <trkpt lat="42.25085" lon="0.05564">
        <ele>701.3</ele>
        <time>2015-09-24T09:28:19Z</time>
      </trkpt>
      <trkpt lat="42.25082" lon="0.0556">
        <ele>701.3</ele>
        <time>2015-09-24T09:28:20Z</time>
      </trkpt>
      <trkpt lat="42.25079" lon="0.05557">
        <ele>701.3</ele>
        <time>2015-09-24T09:28:21Z</time>
      </trkpt>
      <trkpt lat="42.25076" lon="0.05554">
        <ele>701.3</ele>
        <time>2015-09-24T09:28:22Z</time>
      </trkpt>
      <trkpt lat="42.25072" lon="0.0555">
        <ele>701.3</ele>
        <time>2015-09-24T09:28:23Z</time>
      </trkpt>
      <trkpt lat="42.25069" lon="0.05546">
        <ele>701.3</ele>
        <time>2015-09-24T09:28:24Z</time>
      </trkpt>
      <trkpt lat="42.25066" lon="0.05542">
        <ele>701.3</ele>
        <time>2015-09-24T09:28:25Z</time>
      </trkpt>
      <trkpt lat="42.25063" lon="0.05538">
        <ele>701.4</ele>
        <time>2015-09-24T09:28:26Z</time>
      </trkpt>
      <trkpt lat="42.25059" lon="0.05534">
        <ele>701.5</ele>
        <time>2015-09-24T09:28:27Z</time>
      </trkpt>
      <trkpt lat="42.25055" lon="0.0553">
        <ele>701.6</ele>
        <time>2015-09-24T09:28:28Z</time>
      </trkpt>
      <trkpt lat="42.25051" lon="0.05527">
        <ele>701.7</ele>
        <time>2015-09-24T09:28:29Z</time>
      </trkpt>
      <trkpt lat="42.25047" lon="0.05524">
        <ele>701.8</ele>
        <time>2015-09-24T09:28:30Z</time>
      </trkpt>
      <trkpt lat="42.25043" lon="0.0552">
        <ele>701.8</ele>
        <time>2015-09-24T09:28:31Z</time>
      </trkpt>
      <trkpt lat="42.25038" lon="0.05516">
        <ele>701.8</ele>
        <time>2015-09-24T09:28:32Z</time>
      </trkpt>
      <trkpt lat="42.25034" lon="0.05514">
        <ele>701.8</ele>
        <time>2015-09-24T09:28:33Z</time>
      </trkpt>
      <trkpt lat="42.2503" lon="0.05512">
        <ele>701.7</ele>
        <time>2015-09-24T09:28:34Z</time>
      </trkpt>
      <trkpt lat="42.25025" lon="0.05509">
        <ele>701.7</ele>
        <time>2015-09-24T09:28:35Z</time>
      </trkpt>
      <trkpt lat="42.25021" lon="0.05507">
        <ele>701.6</ele>
        <time>2015-09-24T09:28:36Z</time>
      </trkpt>
      <trkpt lat="42.25016" lon="0.05505">
        <ele>701.6</ele>
        <time>2015-09-24T09:28:37Z</time>
      </trkpt>
      <trkpt lat="42.25011" lon="0.05502">
        <ele>701.5</ele>
        <time>2015-09-24T09:28:38Z</time>
      </trkpt>
      <trkpt lat="42.25006" lon="0.05499">
        <ele>701.5</ele>
        <time>2015-09-24T09:28:39Z</time>
      </trkpt>
      <trkpt lat="42.25002" lon="0.05497">
        <ele>701.4</ele>
        <time>2015-09-24T09:28:40Z</time>
      </trkpt>
      <trkpt lat="42.24997" lon="0.05494">
        <ele>701.3</ele>
        <time>2015-09-24T09:28:41Z</time>
      </trkpt>
      <trkpt lat="42.24992" lon="0.05492">
        <ele>701.3</ele>
        <time>2015-09-24T09:28:42Z</time>
      </trkpt>
      <trkpt lat="42.24987" lon="0.05489">
        <ele>701.2</ele>
        <time>2015-09-24T09:28:43Z</time>
      </trkpt>
      <trkpt lat="42.24982" lon="0.05487">
        <ele>701.1</ele>
        <time>2015-09-24T09:28:44Z</time>
      </trkpt>
      <trkpt lat="42.24977" lon="0.05486">
        <ele>700.9</ele>
        <time>2015-09-24T09:28:45Z</time>
      </trkpt>
      <trkpt lat="42.24972" lon="0.05484">
        <ele>700.8</ele>
        <time>2015-09-24T09:28:46Z</time>
      </trkpt>
      <trkpt lat="42.24967" lon="0.05482">
        <ele>700.7</ele>
        <time>2015-09-24T09:28:47Z</time>
      </trkpt>
      <trkpt lat="42.24962" lon="0.05481">
        <ele>700.6</ele>
        <time>2015-09-24T09:28:48Z</time>
      </trkpt>
      <trkpt lat="42.24957" lon="0.05479">
        <ele>700.4</ele>
        <time>2015-09-24T09:28:49Z</time>
      </trkpt>
      <trkpt lat="42.24952" lon="0.05477">
        <ele>700.2</ele>
        <time>2015-09-24T09:28:50Z</time>
      </trkpt>
      <trkpt lat="42.24946" lon="0.05475">
        <ele>700</ele>
        <time>2015-09-24T09:28:51Z</time>
      </trkpt>
      <trkpt lat="42.2494" lon="0.05474">
        <ele>699.7</ele>
        <time>2015-09-24T09:28:52Z</time>
      </trkpt>
      <trkpt lat="42.24934" lon="0.05472">
        <ele>699.5</ele>
        <time>2015-09-24T09:28:53Z</time>
      </trkpt>
      <trkpt lat="42.24929" lon="0.05469">
        <ele>699.3</ele>
        <time>2015-09-24T09:28:54Z</time>
      </trkpt>
      <trkpt lat="42.24923" lon="0.05466">
        <ele>699.1</ele>
        <time>2015-09-24T09:28:55Z</time>
      </trkpt>
      <trkpt lat="42.24917" lon="0.05463">
        <ele>698.9</ele>
        <time>2015-09-24T09:28:56Z</time>
      </trkpt>
      <trkpt lat="42.24911" lon="0.0546">
        <ele>698.7</ele>
        <time>2015-09-24T09:28:57Z</time>
      </trkpt>
      <trkpt lat="42.24906" lon="0.05457">
        <ele>698.6</ele>
        <time>2015-09-24T09:28:58Z</time>
      </trkpt>
      <trkpt lat="42.249" lon="0.05454">
        <ele>698.5</ele>
        <time>2015-09-24T09:28:59Z</time>
      </trkpt>
      <trkpt lat="42.24895" lon="0.05452">
        <ele>698.4</ele>
        <time>2015-09-24T09:29:00Z</time>
      </trkpt>
      <trkpt lat="42.24889" lon="0.05449">
        <ele>698.4</ele>
        <time>2015-09-24T09:29:01Z</time>
      </trkpt>
      <trkpt lat="42.24884" lon="0.05447">
        <ele>698.3</ele>
        <time>2015-09-24T09:29:02Z</time>
      </trkpt>
      <trkpt lat="42.24879" lon="0.05443">
        <ele>698.3</ele>
        <time>2015-09-24T09:29:03Z</time>
      </trkpt>
      <trkpt lat="42.24874" lon="0.05439">
        <ele>698.3</ele>
        <time>2015-09-24T09:29:04Z</time>
      </trkpt>
      <trkpt lat="42.24869" lon="0.05435">
        <ele>698.4</ele>
        <time>2015-09-24T09:29:05Z</time>
      </trkpt>
      <trkpt lat="42.24866" lon="0.05432">
        <ele>698.5</ele>
        <time>2015-09-24T09:29:06Z</time>
      </trkpt>
      <trkpt lat="42.24862" lon="0.05428">
        <ele>698.6</ele>
        <time>2015-09-24T09:29:07Z</time>
      </trkpt>
      <trkpt lat="42.24858" lon="0.05424">
        <ele>698.7</ele>
        <time>2015-09-24T09:29:08Z</time>
      </trkpt>
      <trkpt lat="42.24855" lon="0.05419">
        <ele>698.9</ele>
        <time>2015-09-24T09:29:09Z</time>
      </trkpt>
      <trkpt lat="42.24851" lon="0.05414">
        <ele>699</ele>
        <time>2015-09-24T09:29:10Z</time>
      </trkpt>
      <trkpt lat="42.24846" lon="0.0541">
        <ele>699</ele>
        <time>2015-09-24T09:29:11Z</time>
      </trkpt>
      <trkpt lat="42.24842" lon="0.05405">
        <ele>699</ele>
        <time>2015-09-24T09:29:12Z</time>
      </trkpt>
      <trkpt lat="42.24837" lon="0.05401">
        <ele>698.9</ele>
        <time>2015-09-24T09:29:13Z</time>
      </trkpt>
      <trkpt lat="42.24832" lon="0.05397">
        <ele>698.9</ele>
        <time>2015-09-24T09:29:14Z</time>
      </trkpt>
      <trkpt lat="42.24828" lon="0.05392">
        <ele>698.8</ele>
        <time>2015-09-24T09:29:15Z</time>
      </trkpt>
      <trkpt lat="42.24823" lon="0.05388">
        <ele>698.7</ele>
        <time>2015-09-24T09:29:16Z</time>
      </trkpt>
      <trkpt lat="42.24818" lon="0.05384">
        <ele>698.6</ele>
        <time>2015-09-24T09:29:17Z</time>
      </trkpt>
      <trkpt lat="42.24814" lon="0.05379">
        <ele>698.4</ele>
        <time>2015-09-24T09:29:18Z</time>
      </trkpt>
      <trkpt lat="42.24809" lon="0.05375">
        <ele>698.3</ele>
        <time>2015-09-24T09:29:19Z</time>
      </trkpt>
      <trkpt lat="42.24805" lon="0.0537">
        <ele>697.9</ele>
        <time>2015-09-24T09:29:20Z</time>
      </trkpt>
      <trkpt lat="42.248" lon="0.05366">
        <ele>697.5</ele>
        <time>2015-09-24T09:29:21Z</time>
      </trkpt>
      <trkpt lat="42.24795" lon="0.05362">
        <ele>697.1</ele>
        <time>2015-09-24T09:29:22Z</time>
      </trkpt>
      <trkpt lat="42.2479" lon="0.05358">
        <ele>696.8</ele>
        <time>2015-09-24T09:29:23Z</time>
      </trkpt>
      <trkpt lat="42.24785" lon="0.05355">
        <ele>696.7</ele>
        <time>2015-09-24T09:29:24Z</time>
      </trkpt>
      <trkpt lat="42.24781" lon="0.05351">
        <ele>696.7</ele>
        <time>2015-09-24T09:29:25Z</time>
      </trkpt>
      <trkpt lat="42.24776" lon="0.05347">
        <ele>696.6</ele>
        <time>2015-09-24T09:29:26Z</time>
      </trkpt>
      <trkpt lat="42.24771" lon="0.05344">
        <ele>696.6</ele>
        <time>2015-09-24T09:29:27Z</time>
      </trkpt>
      <trkpt lat="42.24767" lon="0.0534">
        <ele>696.5</ele>
        <time>2015-09-24T09:29:28Z</time>
      </trkpt>
      <trkpt lat="42.24762" lon="0.05336">
        <ele>696.5</ele>
        <time>2015-09-24T09:29:29Z</time>
      </trkpt>
      <trkpt lat="42.24758" lon="0.05333">
        <ele>696.5</ele>
        <time>2015-09-24T09:29:30Z</time>
      </trkpt>
      <trkpt lat="42.24754" lon="0.05329">
        <ele>696.5</ele>
        <time>2015-09-24T09:29:31Z</time>
      </trkpt>
      <trkpt lat="42.24751" lon="0.05324">
        <ele>696.5</ele>
        <time>2015-09-24T09:29:32Z</time>
      </trkpt>
      <trkpt lat="42.24748" lon="0.0532">
        <ele>696.5</ele>
        <time>2015-09-24T09:29:33Z</time>
      </trkpt>
      <trkpt lat="42.24746" lon="0.05317">
        <ele>696.5</ele>
        <time>2015-09-24T09:29:34Z</time>
      </trkpt>
      <trkpt lat="42.24742" lon="0.05313">
        <ele>696.5</ele>
        <time>2015-09-24T09:29:35Z</time>
      </trkpt>
      <trkpt lat="42.24739" lon="0.0531">
        <ele>696.6</ele>
        <time>2015-09-24T09:29:36Z</time>
      </trkpt>
      <trkpt lat="42.24735" lon="0.05304">
        <ele>696.6</ele>
        <time>2015-09-24T09:29:37Z</time>
      </trkpt>
      <trkpt lat="42.24731" lon="0.05297">
        <ele>696.7</ele>
        <time>2015-09-24T09:29:38Z</time>
      </trkpt>
      <trkpt lat="42.24728" lon="0.05292">
        <ele>696.8</ele>
        <time>2015-09-24T09:29:39Z</time>
      </trkpt>
      <trkpt lat="42.24726" lon="0.05285">
        <ele>697.2</ele>
        <time>2015-09-24T09:29:40Z</time>
      </trkpt>
      <trkpt lat="42.24724" lon="0.05279">
        <ele>697.6</ele>
        <time>2015-09-24T09:29:41Z</time>
      </trkpt>
      <trkpt lat="42.24723" lon="0.05272">
        <ele>698</ele>
        <time>2015-09-24T09:29:42Z</time>
      </trkpt>
      <trkpt lat="42.24721" lon="0.05264">
        <ele>698.5</ele>
        <time>2015-09-24T09:29:43Z</time>
      </trkpt>
      <trkpt lat="42.24719" lon="0.05256">
        <ele>698.9</ele>
        <time>2015-09-24T09:29:44Z</time>
      </trkpt>
      <trkpt lat="42.24717" lon="0.05249">
        <ele>699.4</ele>
        <time>2015-09-24T09:29:45Z</time>
      </trkpt>
      <trkpt lat="42.24715" lon="0.05243">
        <ele>699.8</ele>
        <time>2015-09-24T09:29:46Z</time>
      </trkpt>
      <trkpt lat="42.24713" lon="0.05238">
        <ele>700.1</ele>
        <time>2015-09-24T09:29:47Z</time>
      </trkpt>
      <trkpt lat="42.2471" lon="0.05235">
        <ele>700.4</ele>
        <time>2015-09-24T09:29:48Z</time>
      </trkpt>
      <trkpt lat="42.24707" lon="0.05234">
        <ele>700.5</ele>
        <time>2015-09-24T09:29:49Z</time>
      </trkpt>
      <trkpt lat="42.24703" lon="0.05232">
        <ele>700.7</ele>
        <time>2015-09-24T09:29:51Z</time>
      </trkpt>
      <trkpt lat="42.247" lon="0.0523">
        <ele>700.9</ele>
        <time>2015-09-24T09:29:53Z</time>
      </trkpt>
      <trkpt lat="42.24696" lon="0.05229">
        <ele>701</ele>
        <time>2015-09-24T09:29:55Z</time>
      </trkpt>
      <trkpt lat="42.24692" lon="0.05226">
        <ele>701.2</ele>
        <time>2015-09-24T09:29:57Z</time>
      </trkpt>
      <trkpt lat="42.24689" lon="0.05223">
        <ele>701.4</ele>
        <time>2015-09-24T09:29:59Z</time>
      </trkpt>
      <trkpt lat="42.24687" lon="0.05219">
        <ele>701.7</ele>
        <time>2015-09-24T09:30:01Z</time>
      </trkpt>
      <trkpt lat="42.24685" lon="0.05214">
        <ele>702</ele>
        <time>2015-09-24T09:30:03Z</time>
      </trkpt>
      <trkpt lat="42.24684" lon="0.05208">
        <ele>702.3</ele>
        <time>2015-09-24T09:30:05Z</time>
      </trkpt>
      <trkpt lat="42.24684" lon="0.05203">
        <ele>702.5</ele>
        <time>2015-09-24T09:30:07Z</time>
      </trkpt>
      <trkpt lat="42.24683" lon="0.05197">
        <ele>702.7</ele>
        <time>2015-09-24T09:30:09Z</time>
      </trkpt>
      <trkpt lat="42.24682" lon="0.05192">
        <ele>703</ele>
        <time>2015-09-24T09:30:11Z</time>
      </trkpt>
      <trkpt lat="42.24681" lon="0.05187">
        <ele>703.2</ele>
        <time>2015-09-24T09:30:13Z</time>
      </trkpt>
      <trkpt lat="42.24682" lon="0.05181">
        <ele>703.4</ele>
        <time>2015-09-24T09:30:15Z</time>
      </trkpt>
      <trkpt lat="42.24681" lon="0.05175">
        <ele>703.6</ele>
        <time>2015-09-24T09:30:17Z</time>
      </trkpt>
      <trkpt lat="42.2468" lon="0.0517">
        <ele>703.9</ele>
        <time>2015-09-24T09:30:19Z</time>
      </trkpt>
      <trkpt lat="42.24678" lon="0.05165">
        <ele>704.1</ele>
        <time>2015-09-24T09:30:21Z</time>
      </trkpt>
      <trkpt lat="42.24676" lon="0.05161">
        <ele>704.3</ele>
        <time>2015-09-24T09:30:23Z</time>
      </trkpt>
      <trkpt lat="42.24674" lon="0.05158">
        <ele>704.5</ele>
        <time>2015-09-24T09:30:25Z</time>
      </trkpt>
      <trkpt lat="42.24672" lon="0.05155">
        <ele>704.6</ele>
        <time>2015-09-24T09:30:27Z</time>
      </trkpt>
      <trkpt lat="42.2467" lon="0.05152">
        <ele>704.8</ele>
        <time>2015-09-24T09:30:29Z</time>
      </trkpt>
      <trkpt lat="42.24669" lon="0.05149">
        <ele>705</ele>
        <time>2015-09-24T09:30:31Z</time>
      </trkpt>
      <trkpt lat="42.24667" lon="0.05145">
        <ele>705.1</ele>
        <time>2015-09-24T09:30:33Z</time>
      </trkpt>
      <trkpt lat="42.24665" lon="0.05141">
        <ele>705.4</ele>
        <time>2015-09-24T09:30:36Z</time>
      </trkpt>
      <trkpt lat="42.24664" lon="0.05137">
        <ele>705.5</ele>
        <time>2015-09-24T09:30:38Z</time>
      </trkpt>
      <trkpt lat="42.24663" lon="0.05134">
        <ele>705.7</ele>
        <time>2015-09-24T09:30:40Z</time>
      </trkpt>
      <trkpt lat="42.24661" lon="0.05128">
        <ele>706</ele>
        <time>2015-09-24T09:30:42Z</time>
      </trkpt>
      <trkpt lat="42.24659" lon="0.05123">
        <ele>706.3</ele>
        <time>2015-09-24T09:30:44Z</time>
      </trkpt>
      <trkpt lat="42.24656" lon="0.05119">
        <ele>706.5</ele>
        <time>2015-09-24T09:30:46Z</time>
      </trkpt>
      <trkpt lat="42.24654" lon="0.05115">
        <ele>706.7</ele>
        <time>2015-09-24T09:30:48Z</time>
      </trkpt>
      <trkpt lat="42.24651" lon="0.05112">
        <ele>706.9</ele>
        <time>2015-09-24T09:30:50Z</time>
      </trkpt>
      <trkpt lat="42.24649" lon="0.0511">
        <ele>707</ele>
        <time>2015-09-24T09:30:52Z</time>
      </trkpt>
      <trkpt lat="42.24646" lon="0.05107">
        <ele>707.2</ele>
        <time>2015-09-24T09:30:54Z</time>
      </trkpt>
      <trkpt lat="42.24644" lon="0.05104">
        <ele>707.4</ele>
        <time>2015-09-24T09:30:56Z</time>
      </trkpt>
      <trkpt lat="42.24642" lon="0.05099">
        <ele>707.6</ele>
        <time>2015-09-24T09:30:58Z</time>
      </trkpt>
      <trkpt lat="42.2464" lon="0.05097">
        <ele>707.7</ele>
        <time>2015-09-24T09:30:59Z</time>
      </trkpt>
      <trkpt lat="42.24635" lon="0.05093">
        <ele>708</ele>
        <time>2015-09-24T09:31:01Z</time>
      </trkpt>
      <trkpt lat="42.2463" lon="0.0509">
        <ele>708.2</ele>
        <time>2015-09-24T09:31:03Z</time>
      </trkpt>
      <trkpt lat="42.24626" lon="0.05087">
        <ele>708.4</ele>
        <time>2015-09-24T09:31:05Z</time>
      </trkpt>
      <trkpt lat="42.24621" lon="0.05084">
        <ele>708</ele>
        <time>2015-09-24T09:31:07Z</time>
      </trkpt>
      <trkpt lat="42.24618" lon="0.05083">
        <ele>707.8</ele>
        <time>2015-09-24T09:31:08Z</time>
      </trkpt>
      <trkpt lat="42.24615" lon="0.05081">
        <ele>707.5</ele>
        <time>2015-09-24T09:31:09Z</time>
      </trkpt>
      <trkpt lat="42.24612" lon="0.05079">
        <ele>707.3</ele>
        <time>2015-09-24T09:31:10Z</time>
      </trkpt>
      <trkpt lat="42.2461" lon="0.05077">
        <ele>707</ele>
        <time>2015-09-24T09:31:11Z</time>
      </trkpt>
      <trkpt lat="42.24607" lon="0.05075">
        <ele>706.8</ele>
        <time>2015-09-24T09:31:12Z</time>
      </trkpt>
      <trkpt lat="42.24605" lon="0.05073">
        <ele>706.7</ele>
        <time>2015-09-24T09:31:13Z</time>
      </trkpt>
      <trkpt lat="42.24601" lon="0.05068">
        <ele>706.3</ele>
        <time>2015-09-24T09:31:15Z</time>
      </trkpt>
      <trkpt lat="42.24599" lon="0.05065">
        <ele>706.2</ele>
        <time>2015-09-24T09:31:16Z</time>
      </trkpt>
      <trkpt lat="42.24597" lon="0.05062">
        <ele>706.1</ele>
        <time>2015-09-24T09:31:17Z</time>
      </trkpt>
      <trkpt lat="42.24596" lon="0.05059">
        <ele>706</ele>
        <time>2015-09-24T09:31:18Z</time>
      </trkpt>
      <trkpt lat="42.24594" lon="0.05056">
        <ele>705.9</ele>
        <time>2015-09-24T09:31:19Z</time>
      </trkpt>
      <trkpt lat="42.2459" lon="0.05051">
        <ele>705.5</ele>
        <time>2015-09-24T09:31:21Z</time>
      </trkpt>
      <trkpt lat="42.24588" lon="0.05049">
        <ele>705.3</ele>
        <time>2015-09-24T09:31:22Z</time>
      </trkpt>
      <trkpt lat="42.24586" lon="0.05046">
        <ele>705.1</ele>
        <time>2015-09-24T09:31:23Z</time>
      </trkpt>
      <trkpt lat="42.24584" lon="0.05044">
        <ele>705</ele>
        <time>2015-09-24T09:31:24Z</time>
      </trkpt>
      <trkpt lat="42.24582" lon="0.05041">
        <ele>704.9</ele>
        <time>2015-09-24T09:31:25Z</time>
      </trkpt>
      <trkpt lat="42.24578" lon="0.05036">
        <ele>704.7</ele>
        <time>2015-09-24T09:31:27Z</time>
      </trkpt>
      <trkpt lat="42.24575" lon="0.05033">
        <ele>704.6</ele>
        <time>2015-09-24T09:31:28Z</time>
      </trkpt>
      <trkpt lat="42.24573" lon="0.05031">
        <ele>704.5</ele>
        <time>2015-09-24T09:31:29Z</time>
      </trkpt>
      <trkpt lat="42.24571" lon="0.05027">
        <ele>704.4</ele>
        <time>2015-09-24T09:31:30Z</time>
      </trkpt>
      <trkpt lat="42.24568" lon="0.05023">
        <ele>704.3</ele>
        <time>2015-09-24T09:31:31Z</time>
      </trkpt>
      <trkpt lat="42.24565" lon="0.05019">
        <ele>704.3</ele>
        <time>2015-09-24T09:31:32Z</time>
      </trkpt>
      <trkpt lat="42.24563" lon="0.05014">
        <ele>704.4</ele>
        <time>2015-09-24T09:31:33Z</time>
      </trkpt>
      <trkpt lat="42.24561" lon="0.05008">
        <ele>704.5</ele>
        <time>2015-09-24T09:31:34Z</time>
      </trkpt>
      <trkpt lat="42.24557" lon="0.04999">
        <ele>704.8</ele>
        <time>2015-09-24T09:31:35Z</time>
      </trkpt>
      <trkpt lat="42.24554" lon="0.04992">
        <ele>704.9</ele>
        <time>2015-09-24T09:31:36Z</time>
      </trkpt>
      <trkpt lat="42.24551" lon="0.04985">
        <ele>705</ele>
        <time>2015-09-24T09:31:37Z</time>
      </trkpt>
      <trkpt lat="42.24547" lon="0.04979">
        <ele>705.1</ele>
        <time>2015-09-24T09:31:38Z</time>
      </trkpt>
      <trkpt lat="42.24543" lon="0.04972">
        <ele>705.2</ele>
        <time>2015-09-24T09:31:39Z</time>
      </trkpt>
      <trkpt lat="42.2454" lon="0.04964">
        <ele>705.6</ele>
        <time>2015-09-24T09:31:40Z</time>
      </trkpt>
      <trkpt lat="42.24537" lon="0.04957">
        <ele>706.2</ele>
        <time>2015-09-24T09:31:41Z</time>
      </trkpt>
      <trkpt lat="42.24535" lon="0.0495">
        <ele>706.7</ele>
        <time>2015-09-24T09:31:42Z</time>
      </trkpt>
      <trkpt lat="42.24535" lon="0.04942">
        <ele>707.2</ele>
        <time>2015-09-24T09:31:43Z</time>
      </trkpt>
      <trkpt lat="42.24535" lon="0.04934">
        <ele>707.7</ele>
        <time>2015-09-24T09:31:44Z</time>
      </trkpt>
      <trkpt lat="42.24535" lon="0.04926">
        <ele>708.1</ele>
        <time>2015-09-24T09:31:45Z</time>
      </trkpt>
      <trkpt lat="42.24535" lon="0.04919">
        <ele>708.6</ele>
        <time>2015-09-24T09:31:46Z</time>
      </trkpt>
      <trkpt lat="42.24534" lon="0.04914">
        <ele>708.9</ele>
        <time>2015-09-24T09:31:47Z</time>
      </trkpt>
      <trkpt lat="42.24533" lon="0.04909">
        <ele>709.2</ele>
        <time>2015-09-24T09:31:48Z</time>
      </trkpt>
      <trkpt lat="42.24533" lon="0.04904">
        <ele>709.5</ele>
        <time>2015-09-24T09:31:49Z</time>
      </trkpt>
      <trkpt lat="42.2453" lon="0.04898">
        <ele>710</ele>
        <time>2015-09-24T09:31:50Z</time>
      </trkpt>
      <trkpt lat="42.24528" lon="0.04893">
        <ele>710.4</ele>
        <time>2015-09-24T09:31:51Z</time>
      </trkpt>
      <trkpt lat="42.24525" lon="0.04891">
        <ele>710.6</ele>
        <time>2015-09-24T09:31:52Z</time>
      </trkpt>
      <trkpt lat="42.24523" lon="0.04889">
        <ele>710.8</ele>
        <time>2015-09-24T09:31:54Z</time>
      </trkpt>
      <trkpt lat="42.24519" lon="0.04886">
        <ele>711.1</ele>
        <time>2015-09-24T09:31:57Z</time>
      </trkpt>
      <trkpt lat="42.24516" lon="0.04883">
        <ele>711.4</ele>
        <time>2015-09-24T09:31:59Z</time>
      </trkpt>
      <trkpt lat="42.24513" lon="0.0488">
        <ele>711.7</ele>
        <time>2015-09-24T09:32:01Z</time>
      </trkpt>
      <trkpt lat="42.24509" lon="0.04876">
        <ele>712.1</ele>
        <time>2015-09-24T09:32:03Z</time>
      </trkpt>
      <trkpt lat="42.24507" lon="0.04874">
        <ele>712.3</ele>
        <time>2015-09-24T09:32:04Z</time>
      </trkpt>
      <trkpt lat="42.24504" lon="0.04872">
        <ele>712.6</ele>
        <time>2015-09-24T09:32:05Z</time>
      </trkpt>
      <trkpt lat="42.24501" lon="0.0487">
        <ele>712.8</ele>
        <time>2015-09-24T09:32:06Z</time>
      </trkpt>
      <trkpt lat="42.24499" lon="0.04867">
        <ele>713.1</ele>
        <time>2015-09-24T09:32:07Z</time>
      </trkpt>
      <trkpt lat="42.24496" lon="0.04865">
        <ele>713.3</ele>
        <time>2015-09-24T09:32:08Z</time>
      </trkpt>
      <trkpt lat="42.24493" lon="0.04863">
        <ele>713.6</ele>
        <time>2015-09-24T09:32:09Z</time>
      </trkpt>
      <trkpt lat="42.24489" lon="0.04861">
        <ele>713.8</ele>
        <time>2015-09-24T09:32:10Z</time>
      </trkpt>
      <trkpt lat="42.24486" lon="0.04859">
        <ele>714.1</ele>
        <time>2015-09-24T09:32:11Z</time>
      </trkpt>
      <trkpt lat="42.24482" lon="0.04857">
        <ele>714.4</ele>
        <time>2015-09-24T09:32:12Z</time>
      </trkpt>
      <trkpt lat="42.24479" lon="0.04855">
        <ele>714.7</ele>
        <time>2015-09-24T09:32:13Z</time>
      </trkpt>
      <trkpt lat="42.24475" lon="0.04854">
        <ele>714.9</ele>
        <time>2015-09-24T09:32:14Z</time>
      </trkpt>
      <trkpt lat="42.24471" lon="0.04854">
        <ele>715</ele>
        <time>2015-09-24T09:32:15Z</time>
      </trkpt>
      <trkpt lat="42.24467" lon="0.04854">
        <ele>715.2</ele>
        <time>2015-09-24T09:32:16Z</time>
      </trkpt>
      <trkpt lat="42.24463" lon="0.04854">
        <ele>715.3</ele>
        <time>2015-09-24T09:32:17Z</time>
      </trkpt>
      <trkpt lat="42.2446" lon="0.04855">
        <ele>715.4</ele>
        <time>2015-09-24T09:32:18Z</time>
      </trkpt>
      <trkpt lat="42.24456" lon="0.04857">
        <ele>715.2</ele>
        <time>2015-09-24T09:32:19Z</time>
      </trkpt>
      <trkpt lat="42.24452" lon="0.04859">
        <ele>715</ele>
        <time>2015-09-24T09:32:20Z</time>
      </trkpt>
      <trkpt lat="42.24449" lon="0.0486">
        <ele>714.7</ele>
        <time>2015-09-24T09:32:21Z</time>
      </trkpt>
      <trkpt lat="42.24445" lon="0.04862">
        <ele>714.5</ele>
        <time>2015-09-24T09:32:22Z</time>
      </trkpt>
      <trkpt lat="42.24442" lon="0.04863">
        <ele>714.2</ele>
        <time>2015-09-24T09:32:23Z</time>
      </trkpt>
      <trkpt lat="42.24438" lon="0.04865">
        <ele>714</ele>
        <time>2015-09-24T09:32:24Z</time>
      </trkpt>
      <trkpt lat="42.24435" lon="0.04866">
        <ele>713.8</ele>
        <time>2015-09-24T09:32:25Z</time>
      </trkpt>
      <trkpt lat="42.24433" lon="0.04868">
        <ele>713.6</ele>
        <time>2015-09-24T09:32:26Z</time>
      </trkpt>
      <trkpt lat="42.24431" lon="0.04869">
        <ele>713.4</ele>
        <time>2015-09-24T09:32:27Z</time>
      </trkpt>
      <trkpt lat="42.24426" lon="0.04873">
        <ele>713</ele>
        <time>2015-09-24T09:32:29Z</time>
      </trkpt>
      <trkpt lat="42.24421" lon="0.04875">
        <ele>712.6</ele>
        <time>2015-09-24T09:32:31Z</time>
      </trkpt>
      <trkpt lat="42.24417" lon="0.04878">
        <ele>712.3</ele>
        <time>2015-09-24T09:32:33Z</time>
      </trkpt>
      <trkpt lat="42.24412" lon="0.04881">
        <ele>711.9</ele>
        <time>2015-09-24T09:32:35Z</time>
      </trkpt>
      <trkpt lat="42.24407" lon="0.04884">
        <ele>711.5</ele>
        <time>2015-09-24T09:32:37Z</time>
      </trkpt>
      <trkpt lat="42.24402" lon="0.04885">
        <ele>711.3</ele>
        <time>2015-09-24T09:32:39Z</time>
      </trkpt>
      <trkpt lat="42.24398" lon="0.04885">
        <ele>711.1</ele>
        <time>2015-09-24T09:32:41Z</time>
      </trkpt>
      <trkpt lat="42.24393" lon="0.04881">
        <ele>711.2</ele>
        <time>2015-09-24T09:32:43Z</time>
      </trkpt>
      <trkpt lat="42.24391" lon="0.04878">
        <ele>711.4</ele>
        <time>2015-09-24T09:32:44Z</time>
      </trkpt>
      <trkpt lat="42.24389" lon="0.04875">
        <ele>711.5</ele>
        <time>2015-09-24T09:32:45Z</time>
      </trkpt>
      <trkpt lat="42.24387" lon="0.04872">
        <ele>711.7</ele>
        <time>2015-09-24T09:32:46Z</time>
      </trkpt>
      <trkpt lat="42.24385" lon="0.04868">
        <ele>711.8</ele>
        <time>2015-09-24T09:32:47Z</time>
      </trkpt>
      <trkpt lat="42.24383" lon="0.04866">
        <ele>712</ele>
        <time>2015-09-24T09:32:48Z</time>
      </trkpt>
      <trkpt lat="42.24379" lon="0.04861">
        <ele>712.2</ele>
        <time>2015-09-24T09:32:50Z</time>
      </trkpt>
      <trkpt lat="42.24377" lon="0.04857">
        <ele>712.4</ele>
        <time>2015-09-24T09:32:58Z</time>
      </trkpt>
      <trkpt lat="42.24374" lon="0.04854">
        <ele>712.4</ele>
        <time>2015-09-24T09:33:00Z</time>
      </trkpt>
      <trkpt lat="42.24372" lon="0.04852">
        <ele>712.4</ele>
        <time>2015-09-24T09:33:01Z</time>
      </trkpt>
      <trkpt lat="42.24369" lon="0.0485">
        <ele>712.4</ele>
        <time>2015-09-24T09:33:02Z</time>
      </trkpt>
      <trkpt lat="42.24361" lon="0.04844">
        <ele>712.2</ele>
        <time>2015-09-24T09:33:03Z</time>
      </trkpt>
      <trkpt lat="42.24357" lon="0.04841">
        <ele>712.1</ele>
        <time>2015-09-24T09:33:04Z</time>
      </trkpt>
      <trkpt lat="42.24353" lon="0.04839">
        <ele>711.9</ele>
        <time>2015-09-24T09:33:05Z</time>
      </trkpt>
      <trkpt lat="42.24348" lon="0.04837">
        <ele>711.7</ele>
        <time>2015-09-24T09:33:06Z</time>
      </trkpt>
      <trkpt lat="42.24344" lon="0.04836">
        <ele>711.4</ele>
        <time>2015-09-24T09:33:07Z</time>
      </trkpt>
      <trkpt lat="42.24341" lon="0.04834">
        <ele>711.3</ele>
        <time>2015-09-24T09:33:08Z</time>
      </trkpt>
      <trkpt lat="42.24337" lon="0.04833">
        <ele>711.1</ele>
        <time>2015-09-24T09:33:09Z</time>
      </trkpt>
      <trkpt lat="42.24333" lon="0.04831">
        <ele>710.8</ele>
        <time>2015-09-24T09:33:11Z</time>
      </trkpt>
      <trkpt lat="42.24327" lon="0.0483">
        <ele>710.4</ele>
        <time>2015-09-24T09:33:13Z</time>
      </trkpt>
      <trkpt lat="42.24324" lon="0.04829">
        <ele>710.2</ele>
        <time>2015-09-24T09:33:14Z</time>
      </trkpt>
      <trkpt lat="42.24321" lon="0.04829">
        <ele>709.9</ele>
        <time>2015-09-24T09:33:15Z</time>
      </trkpt>
      <trkpt lat="42.24318" lon="0.04828">
        <ele>709.7</ele>
        <time>2015-09-24T09:33:16Z</time>
      </trkpt>
      <trkpt lat="42.24313" lon="0.04829">
        <ele>709.3</ele>
        <time>2015-09-24T09:33:18Z</time>
      </trkpt>
      <trkpt lat="42.2431" lon="0.04829">
        <ele>709</ele>
        <time>2015-09-24T09:33:19Z</time>
      </trkpt>
      <trkpt lat="42.24307" lon="0.04829">
        <ele>708.8</ele>
        <time>2015-09-24T09:33:20Z</time>
      </trkpt>
      <trkpt lat="42.24304" lon="0.04828">
        <ele>708.6</ele>
        <time>2015-09-24T09:33:21Z</time>
      </trkpt>
      <trkpt lat="42.24302" lon="0.04827">
        <ele>708.4</ele>
        <time>2015-09-24T09:33:22Z</time>
      </trkpt>
      <trkpt lat="42.24299" lon="0.04826">
        <ele>708.2</ele>
        <time>2015-09-24T09:33:23Z</time>
      </trkpt>
      <trkpt lat="42.24294" lon="0.04823">
        <ele>707.8</ele>
        <time>2015-09-24T09:33:25Z</time>
      </trkpt>
      <trkpt lat="42.2429" lon="0.04819">
        <ele>707.5</ele>
        <time>2015-09-24T09:33:27Z</time>
      </trkpt>
      <trkpt lat="42.24288" lon="0.04816">
        <ele>707.2</ele>
        <time>2015-09-24T09:33:28Z</time>
      </trkpt>
      <trkpt lat="42.24284" lon="0.04812">
        <ele>706.9</ele>
        <time>2015-09-24T09:33:29Z</time>
      </trkpt>
      <trkpt lat="42.24281" lon="0.04808">
        <ele>706.6</ele>
        <time>2015-09-24T09:33:30Z</time>
      </trkpt>
      <trkpt lat="42.24277" lon="0.04804">
        <ele>706.1</ele>
        <time>2015-09-24T09:33:31Z</time>
      </trkpt>
      <trkpt lat="42.24271" lon="0.04799">
        <ele>705.5</ele>
        <time>2015-09-24T09:33:32Z</time>
      </trkpt>
      <trkpt lat="42.24268" lon="0.04795">
        <ele>705.1</ele>
        <time>2015-09-24T09:33:33Z</time>
      </trkpt>
      <trkpt lat="42.24264" lon="0.0479">
        <ele>704.7</ele>
        <time>2015-09-24T09:33:34Z</time>
      </trkpt>
      <trkpt lat="42.2426" lon="0.04785">
        <ele>704.2</ele>
        <time>2015-09-24T09:33:35Z</time>
      </trkpt>
      <trkpt lat="42.24256" lon="0.04781">
        <ele>703.7</ele>
        <time>2015-09-24T09:33:36Z</time>
      </trkpt>
      <trkpt lat="42.24252" lon="0.04777">
        <ele>703.3</ele>
        <time>2015-09-24T09:33:37Z</time>
      </trkpt>
      <trkpt lat="42.24248" lon="0.04774">
        <ele>702.8</ele>
        <time>2015-09-24T09:33:38Z</time>
      </trkpt>
      <trkpt lat="42.24244" lon="0.04771">
        <ele>702.4</ele>
        <time>2015-09-24T09:33:39Z</time>
      </trkpt>
      <trkpt lat="42.24241" lon="0.04767">
        <ele>702.1</ele>
        <time>2015-09-24T09:33:40Z</time>
      </trkpt>
      <trkpt lat="42.24238" lon="0.04765">
        <ele>701.8</ele>
        <time>2015-09-24T09:33:41Z</time>
      </trkpt>
      <trkpt lat="42.24235" lon="0.04763">
        <ele>701.4</ele>
        <time>2015-09-24T09:33:42Z</time>
      </trkpt>
      <trkpt lat="42.24231" lon="0.04761">
        <ele>701</ele>
        <time>2015-09-24T09:33:43Z</time>
      </trkpt>
      <trkpt lat="42.24228" lon="0.04759">
        <ele>700.6</ele>
        <time>2015-09-24T09:33:44Z</time>
      </trkpt>
      <trkpt lat="42.24225" lon="0.04758">
        <ele>700.3</ele>
        <time>2015-09-24T09:33:45Z</time>
      </trkpt>
      <trkpt lat="42.2422" lon="0.04756">
        <ele>699.8</ele>
        <time>2015-09-24T09:33:47Z</time>
      </trkpt>
      <trkpt lat="42.24217" lon="0.04753">
        <ele>699.4</ele>
        <time>2015-09-24T09:33:49Z</time>
      </trkpt>
      <trkpt lat="42.24214" lon="0.0475">
        <ele>699.1</ele>
        <time>2015-09-24T09:33:51Z</time>
      </trkpt>
      <trkpt lat="42.2421" lon="0.04748">
        <ele>698.8</ele>
        <time>2015-09-24T09:33:53Z</time>
      </trkpt>
      <trkpt lat="42.24207" lon="0.04746">
        <ele>698.5</ele>
        <time>2015-09-24T09:33:55Z</time>
      </trkpt>
      <trkpt lat="42.24202" lon="0.04745">
        <ele>698.5</ele>
        <time>2015-09-24T09:33:57Z</time>
      </trkpt>
      <trkpt lat="42.24199" lon="0.04745">
        <ele>698.4</ele>
        <time>2015-09-24T09:33:58Z</time>
      </trkpt>
      <trkpt lat="42.24196" lon="0.04746">
        <ele>698.4</ele>
        <time>2015-09-24T09:33:59Z</time>
      </trkpt>
      <trkpt lat="42.24194" lon="0.04747">
        <ele>698.3</ele>
        <time>2015-09-24T09:34:00Z</time>
      </trkpt>
      <trkpt lat="42.24191" lon="0.04745">
        <ele>698.3</ele>
        <time>2015-09-24T09:34:01Z</time>
      </trkpt>
      <trkpt lat="42.24189" lon="0.04742">
        <ele>698.4</ele>
        <time>2015-09-24T09:34:02Z</time>
      </trkpt>
      <trkpt lat="42.24187" lon="0.04737">
        <ele>698.5</ele>
        <time>2015-09-24T09:34:03Z</time>
      </trkpt>
      <trkpt lat="42.24186" lon="0.04732">
        <ele>698.7</ele>
        <time>2015-09-24T09:34:04Z</time>
      </trkpt>
      <trkpt lat="42.24186" lon="0.04726">
        <ele>698.9</ele>
        <time>2015-09-24T09:34:05Z</time>
      </trkpt>
      <trkpt lat="42.24185" lon="0.04721">
        <ele>699.1</ele>
        <time>2015-09-24T09:34:06Z</time>
      </trkpt>
      <trkpt lat="42.24185" lon="0.04716">
        <ele>699.3</ele>
        <time>2015-09-24T09:34:07Z</time>
      </trkpt>
      <trkpt lat="42.24185" lon="0.04711">
        <ele>699.5</ele>
        <time>2015-09-24T09:34:08Z</time>
      </trkpt>
      <trkpt lat="42.24185" lon="0.04707">
        <ele>699.7</ele>
        <time>2015-09-24T09:34:09Z</time>
      </trkpt>
      <trkpt lat="42.24184" lon="0.04702">
        <ele>700.1</ele>
        <time>2015-09-24T09:34:12Z</time>
      </trkpt>
      <trkpt lat="42.24183" lon="0.04699">
        <ele>700.5</ele>
        <time>2015-09-24T09:34:15Z</time>
      </trkpt>
      <trkpt lat="42.24182" lon="0.04692">
        <ele>701</ele>
        <time>2015-09-24T09:34:17Z</time>
      </trkpt>
      <trkpt lat="42.24181" lon="0.04688">
        <ele>701.5</ele>
        <time>2015-09-24T09:34:18Z</time>
      </trkpt>
      <trkpt lat="42.2418" lon="0.04683">
        <ele>701.9</ele>
        <time>2015-09-24T09:34:19Z</time>
      </trkpt>
      <trkpt lat="42.24179" lon="0.04678">
        <ele>702.4</ele>
        <time>2015-09-24T09:34:20Z</time>
      </trkpt>
      <trkpt lat="42.24178" lon="0.04673">
        <ele>702.8</ele>
        <time>2015-09-24T09:34:21Z</time>
      </trkpt>
      <trkpt lat="42.24176" lon="0.04668">
        <ele>703.2</ele>
        <time>2015-09-24T09:34:22Z</time>
      </trkpt>
      <trkpt lat="42.24175" lon="0.04663">
        <ele>703.7</ele>
        <time>2015-09-24T09:34:23Z</time>
      </trkpt>
      <trkpt lat="42.24174" lon="0.04656">
        <ele>704.4</ele>
        <time>2015-09-24T09:34:24Z</time>
      </trkpt>
      <trkpt lat="42.24171" lon="0.04651">
        <ele>704.8</ele>
        <time>2015-09-24T09:34:26Z</time>
      </trkpt>
      <trkpt lat="42.24167" lon="0.0465">
        <ele>704.9</ele>
        <time>2015-09-24T09:34:28Z</time>
      </trkpt>
      <trkpt lat="42.24164" lon="0.04649">
        <ele>705</ele>
        <time>2015-09-24T09:34:30Z</time>
      </trkpt>
      <trkpt lat="42.24161" lon="0.04649">
        <ele>705.1</ele>
        <time>2015-09-24T09:34:32Z</time>
      </trkpt>
      <trkpt lat="42.24158" lon="0.04649">
        <ele>705.1</ele>
        <time>2015-09-24T09:34:34Z</time>
      </trkpt>
      <trkpt lat="42.24155" lon="0.04649">
        <ele>705.1</ele>
        <time>2015-09-24T09:34:37Z</time>
      </trkpt>
      <trkpt lat="42.24152" lon="0.0465">
        <ele>705</ele>
        <time>2015-09-24T09:34:40Z</time>
      </trkpt>
      <trkpt lat="42.24149" lon="0.04652">
        <ele>704.9</ele>
        <time>2015-09-24T09:34:43Z</time>
      </trkpt>
      <trkpt lat="42.24145" lon="0.04653">
        <ele>704.8</ele>
        <time>2015-09-24T09:34:46Z</time>
      </trkpt>
      <trkpt lat="42.24142" lon="0.04654">
        <ele>704.8</ele>
        <time>2015-09-24T09:34:49Z</time>
      </trkpt>
      <trkpt lat="42.24138" lon="0.04654">
        <ele>704.8</ele>
        <time>2015-09-24T09:34:52Z</time>
      </trkpt>
      <trkpt lat="42.24136" lon="0.04654">
        <ele>704.8</ele>
        <time>2015-09-24T09:34:55Z</time>
      </trkpt>
      <trkpt lat="42.24133" lon="0.04652">
        <ele>705</ele>
        <time>2015-09-24T09:35:01Z</time>
      </trkpt>
      <trkpt lat="42.2413" lon="0.04651">
        <ele>705.1</ele>
        <time>2015-09-24T09:35:07Z</time>
      </trkpt>
      <trkpt lat="42.24127" lon="0.0465">
        <ele>705.2</ele>
        <time>2015-09-24T09:35:10Z</time>
      </trkpt>
      <trkpt lat="42.24124" lon="0.04648">
        <ele>705.3</ele>
        <time>2015-09-24T09:35:13Z</time>
      </trkpt>
      <trkpt lat="42.24122" lon="0.04645">
        <ele>705.2</ele>
        <time>2015-09-24T09:35:16Z</time>
      </trkpt>
      <trkpt lat="42.24119" lon="0.04642">
        <ele>705.2</ele>
        <time>2015-09-24T09:35:19Z</time>
      </trkpt>
      <trkpt lat="42.24117" lon="0.04639">
        <ele>705.2</ele>
        <time>2015-09-24T09:35:22Z</time>
      </trkpt>
      <trkpt lat="42.24115" lon="0.04635">
        <ele>705.3</ele>
        <time>2015-09-24T09:35:25Z</time>
      </trkpt>
      <trkpt lat="42.24113" lon="0.04631">
        <ele>705.4</ele>
        <time>2015-09-24T09:35:28Z</time>
      </trkpt>
      <trkpt lat="42.24111" lon="0.04627">
        <ele>705.3</ele>
        <time>2015-09-24T09:35:30Z</time>
      </trkpt>
      <trkpt lat="42.24107" lon="0.04623">
        <ele>705.2</ele>
        <time>2015-09-24T09:35:32Z</time>
      </trkpt>
      <trkpt lat="42.24104" lon="0.0462">
        <ele>704.9</ele>
        <time>2015-09-24T09:35:34Z</time>
      </trkpt>
      <trkpt lat="42.24101" lon="0.04618">
        <ele>704.7</ele>
        <time>2015-09-24T09:35:36Z</time>
      </trkpt>
      <trkpt lat="42.24098" lon="0.04617">
        <ele>704.4</ele>
        <time>2015-09-24T09:35:42Z</time>
      </trkpt>
      <trkpt lat="42.24096" lon="0.04615">
        <ele>704.3</ele>
        <time>2015-09-24T09:35:47Z</time>
      </trkpt>
      <trkpt lat="42.24092" lon="0.04613">
        <ele>704</ele>
        <time>2015-09-24T09:35:56Z</time>
      </trkpt>
      <trkpt lat="42.2409" lon="0.0461">
        <ele>703.8</ele>
        <time>2015-09-24T09:35:58Z</time>
      </trkpt>
      <trkpt lat="42.24087" lon="0.04607">
        <ele>703.6</ele>
        <time>2015-09-24T09:36:01Z</time>
      </trkpt>
      <trkpt lat="42.24085" lon="0.04604">
        <ele>703.5</ele>
        <time>2015-09-24T09:36:03Z</time>
      </trkpt>
      <trkpt lat="42.24083" lon="0.04601">
        <ele>703.5</ele>
        <time>2015-09-24T09:36:05Z</time>
      </trkpt>
      <trkpt lat="42.24083" lon="0.04597">
        <ele>703.6</ele>
        <time>2015-09-24T09:36:08Z</time>
      </trkpt>
      <trkpt lat="42.24082" lon="0.04593">
        <ele>703.6</ele>
        <time>2015-09-24T09:36:15Z</time>
      </trkpt>
      <trkpt lat="42.2408" lon="0.0459">
        <ele>703.7</ele>
        <time>2015-09-24T09:36:18Z</time>
      </trkpt>
      <trkpt lat="42.24079" lon="0.04585">
        <ele>703.7</ele>
        <time>2015-09-24T09:36:21Z</time>
      </trkpt>
      <trkpt lat="42.24078" lon="0.0458">
        <ele>703.8</ele>
        <time>2015-09-24T09:36:23Z</time>
      </trkpt>
      <trkpt lat="42.24076" lon="0.04573">
        <ele>703.9</ele>
        <time>2015-09-24T09:36:25Z</time>
      </trkpt>
      <trkpt lat="42.24075" lon="0.04569">
        <ele>704</ele>
        <time>2015-09-24T09:36:26Z</time>
      </trkpt>
      <trkpt lat="42.24075" lon="0.04565">
        <ele>704.2</ele>
        <time>2015-09-24T09:36:27Z</time>
      </trkpt>
      <trkpt lat="42.24075" lon="0.04558">
        <ele>704.5</ele>
        <time>2015-09-24T09:36:29Z</time>
      </trkpt>
      <trkpt lat="42.24075" lon="0.04554">
        <ele>704.7</ele>
        <time>2015-09-24T09:36:30Z</time>
      </trkpt>
      <trkpt lat="42.24076" lon="0.0455">
        <ele>704.9</ele>
        <time>2015-09-24T09:36:31Z</time>
      </trkpt>
      <trkpt lat="42.24076" lon="0.04546">
        <ele>705.1</ele>
        <time>2015-09-24T09:36:32Z</time>
      </trkpt>
      <trkpt lat="42.24076" lon="0.04542">
        <ele>705.3</ele>
        <time>2015-09-24T09:36:33Z</time>
      </trkpt>
      <trkpt lat="42.24076" lon="0.04537">
        <ele>705.6</ele>
        <time>2015-09-24T09:36:34Z</time>
      </trkpt>
      <trkpt lat="42.24076" lon="0.04531">
        <ele>705.8</ele>
        <time>2015-09-24T09:36:35Z</time>
      </trkpt>
      <trkpt lat="42.24074" lon="0.04525">
        <ele>706</ele>
        <time>2015-09-24T09:36:36Z</time>
      </trkpt>
      <trkpt lat="42.24073" lon="0.04519">
        <ele>706.1</ele>
        <time>2015-09-24T09:36:37Z</time>
      </trkpt>
      <trkpt lat="42.24071" lon="0.04513">
        <ele>706.3</ele>
        <time>2015-09-24T09:36:38Z</time>
      </trkpt>
      <trkpt lat="42.24069" lon="0.04507">
        <ele>706.4</ele>
        <time>2015-09-24T09:36:39Z</time>
      </trkpt>
      <trkpt lat="42.24067" lon="0.04501">
        <ele>706.6</ele>
        <time>2015-09-24T09:36:40Z</time>
      </trkpt>
      <trkpt lat="42.24065" lon="0.04495">
        <ele>706.7</ele>
        <time>2015-09-24T09:36:41Z</time>
      </trkpt>
      <trkpt lat="42.24063" lon="0.04489">
        <ele>706.9</ele>
        <time>2015-09-24T09:36:42Z</time>
      </trkpt>
      <trkpt lat="42.24061" lon="0.04483">
        <ele>707.1</ele>
        <time>2015-09-24T09:36:43Z</time>
      </trkpt>
      <trkpt lat="42.24059" lon="0.04478">
        <ele>707.2</ele>
        <time>2015-09-24T09:36:44Z</time>
      </trkpt>
      <trkpt lat="42.24057" lon="0.04473">
        <ele>707.3</ele>
        <time>2015-09-24T09:36:45Z</time>
      </trkpt>
      <trkpt lat="42.24055" lon="0.04468">
        <ele>707.4</ele>
        <time>2015-09-24T09:36:46Z</time>
      </trkpt>
      <trkpt lat="42.24053" lon="0.04463">
        <ele>707.6</ele>
        <time>2015-09-24T09:36:47Z</time>
      </trkpt>
      <trkpt lat="42.24051" lon="0.04457">
        <ele>707.7</ele>
        <time>2015-09-24T09:36:48Z</time>
      </trkpt>
      <trkpt lat="42.24048" lon="0.04452">
        <ele>707.8</ele>
        <time>2015-09-24T09:36:49Z</time>
      </trkpt>
      <trkpt lat="42.24046" lon="0.04448">
        <ele>707.8</ele>
        <time>2015-09-24T09:36:50Z</time>
      </trkpt>
      <trkpt lat="42.24043" lon="0.04443">
        <ele>707.8</ele>
        <time>2015-09-24T09:36:51Z</time>
      </trkpt>
      <trkpt lat="42.2404" lon="0.04439">
        <ele>707.9</ele>
        <time>2015-09-24T09:36:52Z</time>
      </trkpt>
      <trkpt lat="42.24037" lon="0.04435">
        <ele>708</ele>
        <time>2015-09-24T09:36:53Z</time>
      </trkpt>
      <trkpt lat="42.24033" lon="0.04433">
        <ele>708.1</ele>
        <time>2015-09-24T09:36:54Z</time>
      </trkpt>
      <trkpt lat="42.24029" lon="0.0443">
        <ele>708.1</ele>
        <time>2015-09-24T09:36:55Z</time>
      </trkpt>
      <trkpt lat="42.24024" lon="0.04427">
        <ele>708.1</ele>
        <time>2015-09-24T09:36:56Z</time>
      </trkpt>
      <trkpt lat="42.2402" lon="0.04424">
        <ele>708.2</ele>
        <time>2015-09-24T09:36:57Z</time>
      </trkpt>
      <trkpt lat="42.24016" lon="0.04421">
        <ele>708.2</ele>
        <time>2015-09-24T09:36:58Z</time>
      </trkpt>
      <trkpt lat="42.24012" lon="0.04417">
        <ele>708.3</ele>
        <time>2015-09-24T09:36:59Z</time>
      </trkpt>
      <trkpt lat="42.24008" lon="0.04414">
        <ele>708.3</ele>
        <time>2015-09-24T09:37:00Z</time>
      </trkpt>
      <trkpt lat="42.24004" lon="0.04411">
        <ele>708.3</ele>
        <time>2015-09-24T09:37:01Z</time>
      </trkpt>
      <trkpt lat="42.24001" lon="0.04409">
        <ele>708.3</ele>
        <time>2015-09-24T09:37:02Z</time>
      </trkpt>
      <trkpt lat="42.23998" lon="0.04406">
        <ele>708.3</ele>
        <time>2015-09-24T09:37:03Z</time>
      </trkpt>
      <trkpt lat="42.23995" lon="0.04403">
        <ele>708.4</ele>
        <time>2015-09-24T09:37:05Z</time>
      </trkpt>
      <trkpt lat="42.23991" lon="0.04398">
        <ele>708.4</ele>
        <time>2015-09-24T09:37:07Z</time>
      </trkpt>
      <trkpt lat="42.23989" lon="0.04395">
        <ele>708.4</ele>
        <time>2015-09-24T09:37:08Z</time>
      </trkpt>
      <trkpt lat="42.23988" lon="0.04393">
        <ele>708.5</ele>
        <time>2015-09-24T09:37:09Z</time>
      </trkpt>
      <trkpt lat="42.23985" lon="0.04387">
        <ele>708.6</ele>
        <time>2015-09-24T09:37:11Z</time>
      </trkpt>
      <trkpt lat="42.23983" lon="0.04382">
        <ele>708.7</ele>
        <time>2015-09-24T09:37:13Z</time>
      </trkpt>
      <trkpt lat="42.23981" lon="0.04376">
        <ele>708.8</ele>
        <time>2015-09-24T09:37:15Z</time>
      </trkpt>
      <trkpt lat="42.23979" lon="0.04371">
        <ele>709.1</ele>
        <time>2015-09-24T09:37:17Z</time>
      </trkpt>
      <trkpt lat="42.23977" lon="0.04366">
        <ele>709.5</ele>
        <time>2015-09-24T09:37:19Z</time>
      </trkpt>
      <trkpt lat="42.23975" lon="0.04362">
        <ele>709.8</ele>
        <time>2015-09-24T09:37:20Z</time>
      </trkpt>
      <trkpt lat="42.23974" lon="0.04359">
        <ele>710.1</ele>
        <time>2015-09-24T09:37:21Z</time>
      </trkpt>
      <trkpt lat="42.23972" lon="0.04355">
        <ele>710.3</ele>
        <time>2015-09-24T09:37:22Z</time>
      </trkpt>
      <trkpt lat="42.2397" lon="0.04352">
        <ele>710.6</ele>
        <time>2015-09-24T09:37:23Z</time>
      </trkpt>
      <trkpt lat="42.23969" lon="0.04349">
        <ele>710.9</ele>
        <time>2015-09-24T09:37:24Z</time>
      </trkpt>
      <trkpt lat="42.23967" lon="0.04345">
        <ele>711.1</ele>
        <time>2015-09-24T09:37:25Z</time>
      </trkpt>
      <trkpt lat="42.23965" lon="0.04343">
        <ele>711.3</ele>
        <time>2015-09-24T09:37:26Z</time>
      </trkpt>
      <trkpt lat="42.23964" lon="0.0434">
        <ele>711.6</ele>
        <time>2015-09-24T09:37:27Z</time>
      </trkpt>
      <trkpt lat="42.23962" lon="0.04337">
        <ele>711.8</ele>
        <time>2015-09-24T09:37:28Z</time>
      </trkpt>
      <trkpt lat="42.2396" lon="0.04334">
        <ele>712</ele>
        <time>2015-09-24T09:37:29Z</time>
      </trkpt>
      <trkpt lat="42.23958" lon="0.04331">
        <ele>712.2</ele>
        <time>2015-09-24T09:37:30Z</time>
      </trkpt>
      <trkpt lat="42.23956" lon="0.04329">
        <ele>712.5</ele>
        <time>2015-09-24T09:37:31Z</time>
      </trkpt>
      <trkpt lat="42.23953" lon="0.04326">
        <ele>712.7</ele>
        <time>2015-09-24T09:37:32Z</time>
      </trkpt>
      <trkpt lat="42.23949" lon="0.04323">
        <ele>713</ele>
        <time>2015-09-24T09:37:34Z</time>
      </trkpt>
      <trkpt lat="42.23945" lon="0.04318">
        <ele>713.4</ele>
        <time>2015-09-24T09:37:36Z</time>
      </trkpt>
      <trkpt lat="42.23941" lon="0.04314">
        <ele>713.8</ele>
        <time>2015-09-24T09:37:38Z</time>
      </trkpt>
      <trkpt lat="42.23937" lon="0.0431">
        <ele>714</ele>
        <time>2015-09-24T09:37:40Z</time>
      </trkpt>
      <trkpt lat="42.23936" lon="0.04305">
        <ele>714.4</ele>
        <time>2015-09-24T09:37:42Z</time>
      </trkpt>
      <trkpt lat="42.23934" lon="0.04301">
        <ele>714.7</ele>
        <time>2015-09-24T09:37:44Z</time>
      </trkpt>
      <trkpt lat="42.23932" lon="0.04297">
        <ele>715</ele>
        <time>2015-09-24T09:37:47Z</time>
      </trkpt>
      <trkpt lat="42.2393" lon="0.04294">
        <ele>715.2</ele>
        <time>2015-09-24T09:37:49Z</time>
      </trkpt>
      <trkpt lat="42.23927" lon="0.04291">
        <ele>715.3</ele>
        <time>2015-09-24T09:37:52Z</time>
      </trkpt>
      <trkpt lat="42.23925" lon="0.04287">
        <ele>715.6</ele>
        <time>2015-09-24T09:37:55Z</time>
      </trkpt>
      <trkpt lat="42.23923" lon="0.04283">
        <ele>715.9</ele>
        <time>2015-09-24T09:37:57Z</time>
      </trkpt>
      <trkpt lat="42.23921" lon="0.0428">
        <ele>716.1</ele>
        <time>2015-09-24T09:37:59Z</time>
      </trkpt>
      <trkpt lat="42.23917" lon="0.04276">
        <ele>716.4</ele>
        <time>2015-09-24T09:38:01Z</time>
      </trkpt>
      <trkpt lat="42.23912" lon="0.04271">
        <ele>716.8</ele>
        <time>2015-09-24T09:38:03Z</time>
      </trkpt>
      <trkpt lat="42.23909" lon="0.04268">
        <ele>717</ele>
        <time>2015-09-24T09:38:04Z</time>
      </trkpt>
      <trkpt lat="42.23907" lon="0.04265">
        <ele>717.2</ele>
        <time>2015-09-24T09:38:05Z</time>
      </trkpt>
      <trkpt lat="42.23904" lon="0.04263">
        <ele>717.3</ele>
        <time>2015-09-24T09:38:06Z</time>
      </trkpt>
      <trkpt lat="42.23902" lon="0.04261">
        <ele>717.5</ele>
        <time>2015-09-24T09:38:07Z</time>
      </trkpt>
      <trkpt lat="42.23898" lon="0.04258">
        <ele>717.7</ele>
        <time>2015-09-24T09:38:09Z</time>
      </trkpt>
      <trkpt lat="42.23895" lon="0.04256">
        <ele>717.8</ele>
        <time>2015-09-24T09:38:15Z</time>
      </trkpt>
      <trkpt lat="42.23893" lon="0.04254">
        <ele>717.9</ele>
        <time>2015-09-24T09:38:19Z</time>
      </trkpt>
      <trkpt lat="42.2389" lon="0.04252">
        <ele>718.1</ele>
        <time>2015-09-24T09:38:23Z</time>
      </trkpt>
      <trkpt lat="42.23888" lon="0.04249">
        <ele>718.4</ele>
        <time>2015-09-24T09:38:26Z</time>
      </trkpt>
      <trkpt lat="42.23886" lon="0.04246">
        <ele>718.6</ele>
        <time>2015-09-24T09:38:29Z</time>
      </trkpt>
      <trkpt lat="42.23883" lon="0.04245">
        <ele>718.6</ele>
        <time>2015-09-24T09:38:32Z</time>
      </trkpt>
      <trkpt lat="42.23881" lon="0.04243">
        <ele>718.8</ele>
        <time>2015-09-24T09:38:35Z</time>
      </trkpt>
      <trkpt lat="42.23878" lon="0.04239">
        <ele>719.1</ele>
        <time>2015-09-24T09:38:39Z</time>
      </trkpt>
      <trkpt lat="42.23875" lon="0.04235">
        <ele>719.4</ele>
        <time>2015-09-24T09:38:42Z</time>
      </trkpt>
      <trkpt lat="42.23871" lon="0.04232">
        <ele>719.5</ele>
        <time>2015-09-24T09:38:44Z</time>
      </trkpt>
      <trkpt lat="42.23868" lon="0.04227">
        <ele>719.8</ele>
        <time>2015-09-24T09:38:46Z</time>
      </trkpt>
      <trkpt lat="42.23865" lon="0.04222">
        <ele>720</ele>
        <time>2015-09-24T09:38:48Z</time>
      </trkpt>
      <trkpt lat="42.23863" lon="0.04218">
        <ele>720.2</ele>
        <time>2015-09-24T09:38:50Z</time>
      </trkpt>
      <trkpt lat="42.2386" lon="0.04214">
        <ele>720.4</ele>
        <time>2015-09-24T09:38:52Z</time>
      </trkpt>
      <trkpt lat="42.23857" lon="0.0421">
        <ele>720.5</ele>
        <time>2015-09-24T09:38:54Z</time>
      </trkpt>
      <trkpt lat="42.23854" lon="0.04205">
        <ele>720.6</ele>
        <time>2015-09-24T09:38:56Z</time>
      </trkpt>
      <trkpt lat="42.23851" lon="0.04201">
        <ele>720.6</ele>
        <time>2015-09-24T09:38:58Z</time>
      </trkpt>
      <trkpt lat="42.23849" lon="0.04198">
        <ele>720.6</ele>
        <time>2015-09-24T09:38:59Z</time>
      </trkpt>
      <trkpt lat="42.23846" lon="0.04193">
        <ele>720.6</ele>
        <time>2015-09-24T09:39:01Z</time>
      </trkpt>
      <trkpt lat="42.23843" lon="0.04188">
        <ele>720.7</ele>
        <time>2015-09-24T09:39:03Z</time>
      </trkpt>
      <trkpt lat="42.2384" lon="0.04182">
        <ele>720.8</ele>
        <time>2015-09-24T09:39:05Z</time>
      </trkpt>
      <trkpt lat="42.23836" lon="0.04178">
        <ele>720.8</ele>
        <time>2015-09-24T09:39:07Z</time>
      </trkpt>
      <trkpt lat="42.23832" lon="0.04174">
        <ele>720.8</ele>
        <time>2015-09-24T09:39:09Z</time>
      </trkpt>
      <trkpt lat="42.23829" lon="0.04169">
        <ele>720.9</ele>
        <time>2015-09-24T09:39:11Z</time>
      </trkpt>
      <trkpt lat="42.23827" lon="0.04164">
        <ele>721</ele>
        <time>2015-09-24T09:39:13Z</time>
      </trkpt>
      <trkpt lat="42.23825" lon="0.0416">
        <ele>721.2</ele>
        <time>2015-09-24T09:39:15Z</time>
      </trkpt>
      <trkpt lat="42.23823" lon="0.04156">
        <ele>721.3</ele>
        <time>2015-09-24T09:39:17Z</time>
      </trkpt>
      <trkpt lat="42.23822" lon="0.04152">
        <ele>721.5</ele>
        <time>2015-09-24T09:39:19Z</time>
      </trkpt>
      <trkpt lat="42.2382" lon="0.04148">
        <ele>721.7</ele>
        <time>2015-09-24T09:39:21Z</time>
      </trkpt>
      <trkpt lat="42.23818" lon="0.04145">
        <ele>721.8</ele>
        <time>2015-09-24T09:39:23Z</time>
      </trkpt>
      <trkpt lat="42.23816" lon="0.04141">
        <ele>721.9</ele>
        <time>2015-09-24T09:39:25Z</time>
      </trkpt>
      <trkpt lat="42.23814" lon="0.04137">
        <ele>722</ele>
        <time>2015-09-24T09:39:27Z</time>
      </trkpt>
      <trkpt lat="42.23812" lon="0.04132">
        <ele>722.3</ele>
        <time>2015-09-24T09:39:29Z</time>
      </trkpt>
      <trkpt lat="42.23811" lon="0.04127">
        <ele>722.6</ele>
        <time>2015-09-24T09:39:31Z</time>
      </trkpt>
      <trkpt lat="42.2381" lon="0.04123">
        <ele>722.9</ele>
        <time>2015-09-24T09:39:33Z</time>
      </trkpt>
      <trkpt lat="42.23809" lon="0.04118">
        <ele>723.5</ele>
        <time>2015-09-24T09:39:35Z</time>
      </trkpt>
      <trkpt lat="42.23809" lon="0.04113">
        <ele>724</ele>
        <time>2015-09-24T09:39:37Z</time>
      </trkpt>
      <trkpt lat="42.23808" lon="0.04107">
        <ele>724.6</ele>
        <time>2015-09-24T09:39:39Z</time>
      </trkpt>
      <trkpt lat="42.23807" lon="0.04102">
        <ele>725.2</ele>
        <time>2015-09-24T09:39:41Z</time>
      </trkpt>
      <trkpt lat="42.23806" lon="0.04096">
        <ele>725.8</ele>
        <time>2015-09-24T09:39:43Z</time>
      </trkpt>
      <trkpt lat="42.23805" lon="0.04091">
        <ele>726.4</ele>
        <time>2015-09-24T09:39:45Z</time>
      </trkpt>
      <trkpt lat="42.23804" lon="0.04087">
        <ele>726.9</ele>
        <time>2015-09-24T09:39:47Z</time>
      </trkpt>
      <trkpt lat="42.238" lon="0.04084">
        <ele>727.2</ele>
        <time>2015-09-24T09:40:36Z</time>
      </trkpt>
      <trkpt lat="42.23798" lon="0.04078">
        <ele>727.8</ele>
        <time>2015-09-24T09:40:38Z</time>
      </trkpt>
      <trkpt lat="42.23797" lon="0.04074">
        <ele>728.3</ele>
        <time>2015-09-24T09:40:39Z</time>
      </trkpt>
      <trkpt lat="42.23796" lon="0.04069">
        <ele>728.8</ele>
        <time>2015-09-24T09:40:40Z</time>
      </trkpt>
      <trkpt lat="42.23794" lon="0.04066">
        <ele>729.1</ele>
        <time>2015-09-24T09:40:41Z</time>
      </trkpt>
      <trkpt lat="42.2379" lon="0.04061">
        <ele>729.7</ele>
        <time>2015-09-24T09:40:43Z</time>
      </trkpt>
      <trkpt lat="42.23788" lon="0.04055">
        <ele>730.3</ele>
        <time>2015-09-24T09:40:45Z</time>
      </trkpt>
      <trkpt lat="42.23787" lon="0.04048">
        <ele>731.1</ele>
        <time>2015-09-24T09:40:47Z</time>
      </trkpt>
      <trkpt lat="42.23787" lon="0.04041">
        <ele>731.9</ele>
        <time>2015-09-24T09:40:49Z</time>
      </trkpt>
      <trkpt lat="42.23787" lon="0.04035">
        <ele>732.5</ele>
        <time>2015-09-24T09:40:51Z</time>
      </trkpt>
      <trkpt lat="42.23787" lon="0.04028">
        <ele>733.1</ele>
        <time>2015-09-24T09:40:53Z</time>
      </trkpt>
      <trkpt lat="42.23786" lon="0.04022">
        <ele>733.8</ele>
        <time>2015-09-24T09:40:55Z</time>
      </trkpt>
      <trkpt lat="42.23786" lon="0.04016">
        <ele>734.3</ele>
        <time>2015-09-24T09:40:57Z</time>
      </trkpt>
      <trkpt lat="42.23788" lon="0.04015">
        <ele>734.5</ele>
        <time>2015-09-24T09:41:06Z</time>
      </trkpt>
      <trkpt lat="42.23789" lon="0.04011">
        <ele>734.9</ele>
        <time>2015-09-24T09:41:12Z</time>
      </trkpt>
      <trkpt lat="42.23789" lon="0.04007">
        <ele>735.2</ele>
        <time>2015-09-24T09:41:24Z</time>
      </trkpt>
      <trkpt lat="42.23791" lon="0.04004">
        <ele>735.6</ele>
        <time>2015-09-24T09:41:31Z</time>
      </trkpt>
      <trkpt lat="42.23793" lon="0.04001">
        <ele>735.9</ele>
        <time>2015-09-24T09:41:39Z</time>
      </trkpt>
      <trkpt lat="42.23793" lon="0.03997">
        <ele>736.3</ele>
        <time>2015-09-24T09:41:47Z</time>
      </trkpt>
      <trkpt lat="42.23792" lon="0.03991">
        <ele>736.8</ele>
        <time>2015-09-24T09:41:49Z</time>
      </trkpt>
      <trkpt lat="42.23789" lon="0.03988">
        <ele>737.1</ele>
        <time>2015-09-24T09:41:51Z</time>
      </trkpt>
      <trkpt lat="42.23786" lon="0.03987">
        <ele>737.1</ele>
        <time>2015-09-24T09:41:53Z</time>
      </trkpt>
      <trkpt lat="42.23783" lon="0.03987">
        <ele>737</ele>
        <time>2015-09-24T09:41:55Z</time>
      </trkpt>
      <trkpt lat="42.2378" lon="0.0399">
        <ele>736.6</ele>
        <time>2015-09-24T09:41:58Z</time>
      </trkpt>
      <trkpt lat="42.23778" lon="0.03994">
        <ele>736.2</ele>
        <time>2015-09-24T09:42:01Z</time>
      </trkpt>
      <trkpt lat="42.23775" lon="0.03997">
        <ele>735.8</ele>
        <time>2015-09-24T09:42:04Z</time>
      </trkpt>
      <trkpt lat="42.23773" lon="0.04001">
        <ele>735.3</ele>
        <time>2015-09-24T09:42:07Z</time>
      </trkpt>
      <trkpt lat="42.23771" lon="0.04004">
        <ele>735</ele>
        <time>2015-09-24T09:42:09Z</time>
      </trkpt>
      <trkpt lat="42.23769" lon="0.04007">
        <ele>734.6</ele>
        <time>2015-09-24T09:42:11Z</time>
      </trkpt>
      <trkpt lat="42.23767" lon="0.0401">
        <ele>734.3</ele>
        <time>2015-09-24T09:42:13Z</time>
      </trkpt>
      <trkpt lat="42.23764" lon="0.04013">
        <ele>734</ele>
        <time>2015-09-24T09:42:15Z</time>
      </trkpt>
      <trkpt lat="42.23762" lon="0.04015">
        <ele>733.7</ele>
        <time>2015-09-24T09:42:17Z</time>
      </trkpt>
      <trkpt lat="42.23759" lon="0.04016">
        <ele>733.5</ele>
        <time>2015-09-24T09:42:19Z</time>
      </trkpt>
      <trkpt lat="42.23756" lon="0.04017">
        <ele>733.4</ele>
        <time>2015-09-24T09:42:21Z</time>
      </trkpt>
      <trkpt lat="42.23753" lon="0.04017">
        <ele>733.3</ele>
        <time>2015-09-24T09:42:23Z</time>
      </trkpt>
      <trkpt lat="42.2375" lon="0.04018">
        <ele>733.2</ele>
        <time>2015-09-24T09:42:25Z</time>
      </trkpt>
      <trkpt lat="42.23747" lon="0.04018">
        <ele>733</ele>
        <time>2015-09-24T09:42:27Z</time>
      </trkpt>
      <trkpt lat="42.23744" lon="0.04018">
        <ele>733</ele>
        <time>2015-09-24T09:42:29Z</time>
      </trkpt>
      <trkpt lat="42.23741" lon="0.04017">
        <ele>733</ele>
        <time>2015-09-24T09:42:31Z</time>
      </trkpt>
      <trkpt lat="42.23739" lon="0.04016">
        <ele>733</ele>
        <time>2015-09-24T09:42:33Z</time>
      </trkpt>
      <trkpt lat="42.23736" lon="0.04015">
        <ele>733</ele>
        <time>2015-09-24T09:42:35Z</time>
      </trkpt>
      <trkpt lat="42.23733" lon="0.04013">
        <ele>733.1</ele>
        <time>2015-09-24T09:42:37Z</time>
      </trkpt>
      <trkpt lat="42.23731" lon="0.0401">
        <ele>733.3</ele>
        <time>2015-09-24T09:42:39Z</time>
      </trkpt>
      <trkpt lat="42.2373" lon="0.04007">
        <ele>733.5</ele>
        <time>2015-09-24T09:42:41Z</time>
      </trkpt>
      <trkpt lat="42.23728" lon="0.04004">
        <ele>733.8</ele>
        <time>2015-09-24T09:42:43Z</time>
      </trkpt>
      <trkpt lat="42.23726" lon="0.04">
        <ele>734</ele>
        <time>2015-09-24T09:42:45Z</time>
      </trkpt>
      <trkpt lat="42.23725" lon="0.03997">
        <ele>734.2</ele>
        <time>2015-09-24T09:42:47Z</time>
      </trkpt>
      <trkpt lat="42.23723" lon="0.03994">
        <ele>734.5</ele>
        <time>2015-09-24T09:42:49Z</time>
      </trkpt>
      <trkpt lat="42.23721" lon="0.0399">
        <ele>734.7</ele>
        <time>2015-09-24T09:42:51Z</time>
      </trkpt>
      <trkpt lat="42.2372" lon="0.03987">
        <ele>735</ele>
        <time>2015-09-24T09:42:53Z</time>
      </trkpt>
      <trkpt lat="42.23718" lon="0.03984">
        <ele>735.2</ele>
        <time>2015-09-24T09:42:55Z</time>
      </trkpt>
      <trkpt lat="42.23716" lon="0.0398">
        <ele>735.5</ele>
        <time>2015-09-24T09:42:57Z</time>
      </trkpt>
      <trkpt lat="42.23715" lon="0.03976">
        <ele>735.7</ele>
        <time>2015-09-24T09:42:59Z</time>
      </trkpt>
      <trkpt lat="42.23714" lon="0.03972">
        <ele>736</ele>
        <time>2015-09-24T09:43:01Z</time>
      </trkpt>
      <trkpt lat="42.23712" lon="0.03968">
        <ele>736.3</ele>
        <time>2015-09-24T09:43:03Z</time>
      </trkpt>
      <trkpt lat="42.2371" lon="0.03963">
        <ele>736.7</ele>
        <time>2015-09-24T09:43:05Z</time>
      </trkpt>
      <trkpt lat="42.23707" lon="0.03958">
        <ele>737</ele>
        <time>2015-09-24T09:43:07Z</time>
      </trkpt>
      <trkpt lat="42.23704" lon="0.03952">
        <ele>737.5</ele>
        <time>2015-09-24T09:43:09Z</time>
      </trkpt>
      <trkpt lat="42.23701" lon="0.03946">
        <ele>738</ele>
        <time>2015-09-24T09:43:11Z</time>
      </trkpt>
      <trkpt lat="42.237" lon="0.03943">
        <ele>738.3</ele>
        <time>2015-09-24T09:43:12Z</time>
      </trkpt>
      <trkpt lat="42.23698" lon="0.0394">
        <ele>738.6</ele>
        <time>2015-09-24T09:43:13Z</time>
      </trkpt>
      <trkpt lat="42.23695" lon="0.03934">
        <ele>739</ele>
        <time>2015-09-24T09:43:15Z</time>
      </trkpt>
      <trkpt lat="42.23693" lon="0.03931">
        <ele>739.3</ele>
        <time>2015-09-24T09:46:13Z</time>
      </trkpt>
      <trkpt lat="42.2369" lon="0.03927">
        <ele>739.6</ele>
        <time>2015-09-24T09:46:15Z</time>
      </trkpt>
      <trkpt lat="42.23687" lon="0.03923">
        <ele>739.9</ele>
        <time>2015-09-24T09:46:17Z</time>
      </trkpt>
      <trkpt lat="42.23682" lon="0.03919">
        <ele>740.2</ele>
        <time>2015-09-24T09:46:19Z</time>
      </trkpt>
      <trkpt lat="42.2368" lon="0.03916">
        <ele>740.3</ele>
        <time>2015-09-24T09:46:20Z</time>
      </trkpt>
      <trkpt lat="42.23678" lon="0.03914">
        <ele>740.5</ele>
        <time>2015-09-24T09:46:21Z</time>
      </trkpt>
      <trkpt lat="42.23673" lon="0.03911">
        <ele>740.8</ele>
        <time>2015-09-24T09:46:23Z</time>
      </trkpt>
      <trkpt lat="42.23671" lon="0.03908">
        <ele>741</ele>
        <time>2015-09-24T09:46:25Z</time>
      </trkpt>
      <trkpt lat="42.23673" lon="0.0391">
        <ele>740.8</ele>
        <time>2015-09-24T09:46:35Z</time>
      </trkpt>
      <trkpt lat="42.23677" lon="0.03914">
        <ele>740.5</ele>
        <time>2015-09-24T09:46:37Z</time>
      </trkpt>
      <trkpt lat="42.23682" lon="0.03918">
        <ele>740.3</ele>
        <time>2015-09-24T09:46:39Z</time>
      </trkpt>
      <trkpt lat="42.23684" lon="0.0392">
        <ele>740.1</ele>
        <time>2015-09-24T09:46:40Z</time>
      </trkpt>
      <trkpt lat="42.23687" lon="0.03922">
        <ele>740</ele>
        <time>2015-09-24T09:46:41Z</time>
      </trkpt>
      <trkpt lat="42.23689" lon="0.03924">
        <ele>739.8</ele>
        <time>2015-09-24T09:46:42Z</time>
      </trkpt>
      <trkpt lat="42.23691" lon="0.03926">
        <ele>739.6</ele>
        <time>2015-09-24T09:46:43Z</time>
      </trkpt>
      <trkpt lat="42.23693" lon="0.03929">
        <ele>739.5</ele>
        <time>2015-09-24T09:46:44Z</time>
      </trkpt>
      <trkpt lat="42.23695" lon="0.03932">
        <ele>739.2</ele>
        <time>2015-09-24T09:46:45Z</time>
      </trkpt>
      <trkpt lat="42.23697" lon="0.03935">
        <ele>739</ele>
        <time>2015-09-24T09:46:46Z</time>
      </trkpt>
      <trkpt lat="42.23699" lon="0.03939">
        <ele>738.6</ele>
        <time>2015-09-24T09:46:47Z</time>
      </trkpt>
      <trkpt lat="42.23701" lon="0.03943">
        <ele>738.3</ele>
        <time>2015-09-24T09:46:48Z</time>
      </trkpt>
      <trkpt lat="42.23703" lon="0.03947">
        <ele>738</ele>
        <time>2015-09-24T09:46:49Z</time>
      </trkpt>
      <trkpt lat="42.23705" lon="0.03951">
        <ele>737.6</ele>
        <time>2015-09-24T09:46:50Z</time>
      </trkpt>
      <trkpt lat="42.23707" lon="0.03955">
        <ele>737.3</ele>
        <time>2015-09-24T09:46:51Z</time>
      </trkpt>
      <trkpt lat="42.23709" lon="0.03959">
        <ele>737</ele>
        <time>2015-09-24T09:46:52Z</time>
      </trkpt>
      <trkpt lat="42.23711" lon="0.03963">
        <ele>736.7</ele>
        <time>2015-09-24T09:46:53Z</time>
      </trkpt>
      <trkpt lat="42.23713" lon="0.03966">
        <ele>736.5</ele>
        <time>2015-09-24T09:46:54Z</time>
      </trkpt>
      <trkpt lat="42.23715" lon="0.0397">
        <ele>736.3</ele>
        <time>2015-09-24T09:46:55Z</time>
      </trkpt>
      <trkpt lat="42.23717" lon="0.03974">
        <ele>736</ele>
        <time>2015-09-24T09:46:57Z</time>
      </trkpt>
      <trkpt lat="42.23718" lon="0.03978">
        <ele>735.7</ele>
        <time>2015-09-24T09:47:10Z</time>
      </trkpt>
      <trkpt lat="42.2372" lon="0.03984">
        <ele>735.2</ele>
        <time>2015-09-24T09:47:12Z</time>
      </trkpt>
      <trkpt lat="42.2372" lon="0.03988">
        <ele>734.9</ele>
        <time>2015-09-24T09:47:14Z</time>
      </trkpt>
      <trkpt lat="42.23723" lon="0.03993">
        <ele>734.6</ele>
        <time>2015-09-24T09:47:26Z</time>
      </trkpt>
      <trkpt lat="42.23724" lon="0.03996">
        <ele>734.3</ele>
        <time>2015-09-24T09:47:27Z</time>
      </trkpt>
      <trkpt lat="42.23726" lon="0.03999">
        <ele>734.1</ele>
        <time>2015-09-24T09:47:28Z</time>
      </trkpt>
      <trkpt lat="42.23727" lon="0.04002">
        <ele>733.9</ele>
        <time>2015-09-24T09:47:29Z</time>
      </trkpt>
      <trkpt lat="42.23729" lon="0.04006">
        <ele>733.6</ele>
        <time>2015-09-24T09:47:30Z</time>
      </trkpt>
      <trkpt lat="42.23731" lon="0.04009">
        <ele>733.4</ele>
        <time>2015-09-24T09:47:31Z</time>
      </trkpt>
      <trkpt lat="42.23734" lon="0.04014">
        <ele>733</ele>
        <time>2015-09-24T09:47:33Z</time>
      </trkpt>
      <trkpt lat="42.23737" lon="0.04018">
        <ele>732.8</ele>
        <time>2015-09-24T09:47:35Z</time>
      </trkpt>
      <trkpt lat="42.23741" lon="0.04019">
        <ele>732.8</ele>
        <time>2015-09-24T09:47:37Z</time>
      </trkpt>
      <trkpt lat="42.23747" lon="0.04021">
        <ele>732.8</ele>
        <time>2015-09-24T09:47:39Z</time>
      </trkpt>
      <trkpt lat="42.2375" lon="0.0402">
        <ele>732.9</ele>
        <time>2015-09-24T09:47:40Z</time>
      </trkpt>
      <trkpt lat="42.23753" lon="0.04019">
        <ele>733.1</ele>
        <time>2015-09-24T09:47:41Z</time>
      </trkpt>
      <trkpt lat="42.23756" lon="0.04018">
        <ele>733.3</ele>
        <time>2015-09-24T09:47:42Z</time>
      </trkpt>
      <trkpt lat="42.23759" lon="0.04018">
        <ele>733.4</ele>
        <time>2015-09-24T09:47:43Z</time>
      </trkpt>
      <trkpt lat="42.23763" lon="0.04016">
        <ele>733.6</ele>
        <time>2015-09-24T09:47:45Z</time>
      </trkpt>
      <trkpt lat="42.23765" lon="0.04016">
        <ele>733.8</ele>
        <time>2015-09-24T09:47:59Z</time>
      </trkpt>
      <trkpt lat="42.23767" lon="0.04011">
        <ele>734.2</ele>
        <time>2015-09-24T09:48:02Z</time>
      </trkpt>
      <trkpt lat="42.2377" lon="0.04008">
        <ele>734.6</ele>
        <time>2015-09-24T09:48:05Z</time>
      </trkpt>
      <trkpt lat="42.23772" lon="0.04007">
        <ele>734.8</ele>
        <time>2015-09-24T09:48:08Z</time>
      </trkpt>
      <trkpt lat="42.23769" lon="0.04009">
        <ele>734.5</ele>
        <time>2015-09-24T09:48:14Z</time>
      </trkpt>
      <trkpt lat="42.23766" lon="0.04012">
        <ele>734.1</ele>
        <time>2015-09-24T09:48:17Z</time>
      </trkpt>
      <trkpt lat="42.23764" lon="0.04015">
        <ele>733.8</ele>
        <time>2015-09-24T09:48:20Z</time>
      </trkpt>
      <trkpt lat="42.23761" lon="0.04017">
        <ele>733.6</ele>
        <time>2015-09-24T09:48:23Z</time>
      </trkpt>
      <trkpt lat="42.23758" lon="0.04018">
        <ele>733.3</ele>
        <time>2015-09-24T09:48:26Z</time>
      </trkpt>
      <trkpt lat="42.23754" lon="0.04019">
        <ele>733.1</ele>
        <time>2015-09-24T09:48:29Z</time>
      </trkpt>
      <trkpt lat="42.23751" lon="0.0402">
        <ele>733</ele>
        <time>2015-09-24T09:48:32Z</time>
      </trkpt>
      <trkpt lat="42.23747" lon="0.0402">
        <ele>732.8</ele>
        <time>2015-09-24T09:48:35Z</time>
      </trkpt>
      <trkpt lat="42.23743" lon="0.0402">
        <ele>732.8</ele>
        <time>2015-09-24T09:48:37Z</time>
      </trkpt>
      <trkpt lat="42.23739" lon="0.04018">
        <ele>732.8</ele>
        <time>2015-09-24T09:48:39Z</time>
      </trkpt>
      <trkpt lat="42.23736" lon="0.04016">
        <ele>732.9</ele>
        <time>2015-09-24T09:48:42Z</time>
      </trkpt>
      <trkpt lat="42.23734" lon="0.04014">
        <ele>733</ele>
        <time>2015-09-24T09:48:45Z</time>
      </trkpt>
      <trkpt lat="42.23731" lon="0.04012">
        <ele>733.2</ele>
        <time>2015-09-24T09:48:49Z</time>
      </trkpt>
      <trkpt lat="42.23729" lon="0.04008">
        <ele>733.5</ele>
        <time>2015-09-24T09:48:56Z</time>
      </trkpt>
      <trkpt lat="42.23727" lon="0.04004">
        <ele>733.7</ele>
        <time>2015-09-24T09:48:58Z</time>
      </trkpt>
      <trkpt lat="42.23725" lon="0.04">
        <ele>734</ele>
        <time>2015-09-24T09:49:00Z</time>
      </trkpt>
      <trkpt lat="42.23723" lon="0.03996">
        <ele>734.3</ele>
        <time>2015-09-24T09:49:02Z</time>
      </trkpt>
      <trkpt lat="42.23721" lon="0.03991">
        <ele>734.6</ele>
        <time>2015-09-24T09:49:04Z</time>
      </trkpt>
      <trkpt lat="42.23719" lon="0.03987">
        <ele>735</ele>
        <time>2015-09-24T09:49:06Z</time>
      </trkpt>
      <trkpt lat="42.23717" lon="0.03982">
        <ele>735.3</ele>
        <time>2015-09-24T09:49:08Z</time>
      </trkpt>
      <trkpt lat="42.23715" lon="0.03977">
        <ele>735.7</ele>
        <time>2015-09-24T09:49:10Z</time>
      </trkpt>
      <trkpt lat="42.23713" lon="0.03972">
        <ele>736</ele>
        <time>2015-09-24T09:49:12Z</time>
      </trkpt>
      <trkpt lat="42.23711" lon="0.03967">
        <ele>736.4</ele>
        <time>2015-09-24T09:49:14Z</time>
      </trkpt>
      <trkpt lat="42.23709" lon="0.03962">
        <ele>736.7</ele>
        <time>2015-09-24T09:49:16Z</time>
      </trkpt>
      <trkpt lat="42.23707" lon="0.03958">
        <ele>737</ele>
        <time>2015-09-24T09:49:18Z</time>
      </trkpt>
      <trkpt lat="42.23703" lon="0.03952">
        <ele>737.5</ele>
        <time>2015-09-24T09:49:20Z</time>
      </trkpt>
      <trkpt lat="42.237" lon="0.03947">
        <ele>737.9</ele>
        <time>2015-09-24T09:49:22Z</time>
      </trkpt>
      <trkpt lat="42.23698" lon="0.03941">
        <ele>738.4</ele>
        <time>2015-09-24T09:49:24Z</time>
      </trkpt>
      <trkpt lat="42.23695" lon="0.03935">
        <ele>738.9</ele>
        <time>2015-09-24T09:49:26Z</time>
      </trkpt>
      <trkpt lat="42.23697" lon="0.03939">
        <ele>738.6</ele>
        <time>2015-09-24T09:49:49Z</time>
      </trkpt>
      <trkpt lat="42.237" lon="0.03944">
        <ele>738.2</ele>
        <time>2015-09-24T09:49:51Z</time>
      </trkpt>
      <trkpt lat="42.23702" lon="0.03949">
        <ele>737.8</ele>
        <time>2015-09-24T09:49:53Z</time>
      </trkpt>
      <trkpt lat="42.23705" lon="0.03954">
        <ele>737.4</ele>
        <time>2015-09-24T09:49:55Z</time>
      </trkpt>
      <trkpt lat="42.23708" lon="0.03959">
        <ele>736.9</ele>
        <time>2015-09-24T09:49:57Z</time>
      </trkpt>
      <trkpt lat="42.23711" lon="0.03965">
        <ele>736.5</ele>
        <time>2015-09-24T09:49:59Z</time>
      </trkpt>
      <trkpt lat="42.23713" lon="0.03971">
        <ele>736.1</ele>
        <time>2015-09-24T09:50:01Z</time>
      </trkpt>
      <trkpt lat="42.23715" lon="0.03977">
        <ele>735.7</ele>
        <time>2015-09-24T09:50:03Z</time>
      </trkpt>
      <trkpt lat="42.23718" lon="0.03984">
        <ele>735.2</ele>
        <time>2015-09-24T09:50:05Z</time>
      </trkpt>
      <trkpt lat="42.23719" lon="0.03987">
        <ele>734.9</ele>
        <time>2015-09-24T09:50:06Z</time>
      </trkpt>
      <trkpt lat="42.23721" lon="0.0399">
        <ele>734.7</ele>
        <time>2015-09-24T09:50:07Z</time>
      </trkpt>
      <trkpt lat="42.23723" lon="0.03994">
        <ele>734.5</ele>
        <time>2015-09-24T09:50:08Z</time>
      </trkpt>
      <trkpt lat="42.23724" lon="0.03997">
        <ele>734.2</ele>
        <time>2015-09-24T09:50:09Z</time>
      </trkpt>
      <trkpt lat="42.23726" lon="0.04">
        <ele>734</ele>
        <time>2015-09-24T09:50:10Z</time>
      </trkpt>
      <trkpt lat="42.23727" lon="0.04004">
        <ele>733.8</ele>
        <time>2015-09-24T09:50:11Z</time>
      </trkpt>
      <trkpt lat="42.23729" lon="0.04007">
        <ele>733.5</ele>
        <time>2015-09-24T09:50:12Z</time>
      </trkpt>
      <trkpt lat="42.2373" lon="0.0401">
        <ele>733.3</ele>
        <time>2015-09-24T09:50:13Z</time>
      </trkpt>
      <trkpt lat="42.23732" lon="0.04013">
        <ele>733.1</ele>
        <time>2015-09-24T09:50:14Z</time>
      </trkpt>
      <trkpt lat="42.23734" lon="0.04016">
        <ele>732.9</ele>
        <time>2015-09-24T09:50:15Z</time>
      </trkpt>
      <trkpt lat="42.23737" lon="0.04018">
        <ele>732.8</ele>
        <time>2015-09-24T09:50:16Z</time>
      </trkpt>
      <trkpt lat="42.2374" lon="0.04019">
        <ele>732.8</ele>
        <time>2015-09-24T09:50:17Z</time>
      </trkpt>
      <trkpt lat="42.23743" lon="0.0402">
        <ele>732.8</ele>
        <time>2015-09-24T09:50:18Z</time>
      </trkpt>
      <trkpt lat="42.23747" lon="0.0402">
        <ele>732.8</ele>
        <time>2015-09-24T09:50:19Z</time>
      </trkpt>
      <trkpt lat="42.23752" lon="0.0402">
        <ele>733</ele>
        <time>2015-09-24T09:50:20Z</time>
      </trkpt>
      <trkpt lat="42.23757" lon="0.04019">
        <ele>733.3</ele>
        <time>2015-09-24T09:50:21Z</time>
      </trkpt>
      <trkpt lat="42.23761" lon="0.04017">
        <ele>733.6</ele>
        <time>2015-09-24T09:50:22Z</time>
      </trkpt>
      <trkpt lat="42.23766" lon="0.04014">
        <ele>734</ele>
        <time>2015-09-24T09:50:23Z</time>
      </trkpt>
      <trkpt lat="42.23769" lon="0.04007">
        <ele>734.7</ele>
        <time>2015-09-24T09:50:24Z</time>
      </trkpt>
      <trkpt lat="42.23772" lon="0.04002">
        <ele>735.2</ele>
        <time>2015-09-24T09:50:25Z</time>
      </trkpt>
      <trkpt lat="42.23774" lon="0.03998">
        <ele>735.7</ele>
        <time>2015-09-24T09:50:26Z</time>
      </trkpt>
      <trkpt lat="42.23777" lon="0.03995">
        <ele>736.1</ele>
        <time>2015-09-24T09:50:27Z</time>
      </trkpt>
      <trkpt lat="42.2378" lon="0.0399">
        <ele>736.5</ele>
        <time>2015-09-24T09:50:29Z</time>
      </trkpt>
      <trkpt lat="42.23783" lon="0.03991">
        <ele>736.6</ele>
        <time>2015-09-24T09:50:37Z</time>
      </trkpt>
      <trkpt lat="42.23785" lon="0.03987">
        <ele>737</ele>
        <time>2015-09-24T09:50:46Z</time>
      </trkpt>
      <trkpt lat="42.23789" lon="0.03987">
        <ele>737.2</ele>
        <time>2015-09-24T09:50:49Z</time>
      </trkpt>
      <trkpt lat="42.23791" lon="0.0399">
        <ele>736.9</ele>
        <time>2015-09-24T09:50:52Z</time>
      </trkpt>
      <trkpt lat="42.23791" lon="0.03994">
        <ele>736.6</ele>
        <time>2015-09-24T09:50:57Z</time>
      </trkpt>
      <trkpt lat="42.23791" lon="0.03998">
        <ele>736.2</ele>
        <time>2015-09-24T09:51:08Z</time>
      </trkpt>
      <trkpt lat="42.23788" lon="0.03997">
        <ele>736.2</ele>
        <time>2015-09-24T09:51:25Z</time>
      </trkpt>
      <trkpt lat="42.23786" lon="0.03999">
        <ele>735.9</ele>
        <time>2015-09-24T09:51:32Z</time>
      </trkpt>
      <trkpt lat="42.23784" lon="0.04001">
        <ele>735.6</ele>
        <time>2015-09-24T09:51:42Z</time>
      </trkpt>
      <trkpt lat="42.23781" lon="0.04004">
        <ele>735.3</ele>
        <time>2015-09-24T09:51:50Z</time>
      </trkpt>
      <trkpt lat="42.23781" lon="0.04008">
        <ele>734.9</ele>
        <time>2015-09-24T09:51:55Z</time>
      </trkpt>
      <trkpt lat="42.2378" lon="0.04012">
        <ele>734.6</ele>
        <time>2015-09-24T09:52:00Z</time>
      </trkpt>
      <trkpt lat="42.23778" lon="0.04014">
        <ele>734.2</ele>
        <time>2015-09-24T09:52:19Z</time>
      </trkpt>
      <trkpt lat="42.23776" lon="0.04017">
        <ele>734</ele>
        <time>2015-09-24T09:53:10Z</time>
      </trkpt>
      <trkpt lat="42.23774" lon="0.04019">
        <ele>733.7</ele>
        <time>2015-09-24T09:53:14Z</time>
      </trkpt>
      <trkpt lat="42.23771" lon="0.04022">
        <ele>733.3</ele>
        <time>2015-09-24T09:53:30Z</time>
      </trkpt>
      <trkpt lat="42.23769" lon="0.04025">
        <ele>733</ele>
        <time>2015-09-24T09:53:33Z</time>
      </trkpt>
      <trkpt lat="42.23766" lon="0.04028">
        <ele>732.7</ele>
        <time>2015-09-24T09:53:35Z</time>
      </trkpt>
      <trkpt lat="42.23764" lon="0.0403">
        <ele>732.4</ele>
        <time>2015-09-24T09:53:37Z</time>
      </trkpt>
      <trkpt lat="42.23761" lon="0.04033">
        <ele>732</ele>
        <time>2015-09-24T09:53:39Z</time>
      </trkpt>
      <trkpt lat="42.23757" lon="0.04036">
        <ele>731.7</ele>
        <time>2015-09-24T09:53:41Z</time>
      </trkpt>
      <trkpt lat="42.23754" lon="0.04038">
        <ele>731.4</ele>
        <time>2015-09-24T09:53:43Z</time>
      </trkpt>
      <trkpt lat="42.2375" lon="0.04039">
        <ele>731.2</ele>
        <time>2015-09-24T09:53:45Z</time>
      </trkpt>
      <trkpt lat="42.23746" lon="0.04039">
        <ele>731.1</ele>
        <time>2015-09-24T09:53:47Z</time>
      </trkpt>
      <trkpt lat="42.23741" lon="0.04039">
        <ele>731</ele>
        <time>2015-09-24T09:53:49Z</time>
      </trkpt>
      <trkpt lat="42.23737" lon="0.04038">
        <ele>731</ele>
        <time>2015-09-24T09:53:51Z</time>
      </trkpt>
      <trkpt lat="42.23733" lon="0.04036">
        <ele>731.1</ele>
        <time>2015-09-24T09:53:53Z</time>
      </trkpt>
      <trkpt lat="42.2373" lon="0.04035">
        <ele>731.1</ele>
        <time>2015-09-24T09:53:57Z</time>
      </trkpt>
      <trkpt lat="42.23727" lon="0.04033">
        <ele>731.2</ele>
        <time>2015-09-24T09:54:00Z</time>
      </trkpt>
      <trkpt lat="42.23725" lon="0.04032">
        <ele>731.3</ele>
        <time>2015-09-24T09:54:03Z</time>
      </trkpt>
      <trkpt lat="42.23722" lon="0.0403">
        <ele>731.4</ele>
        <time>2015-09-24T09:54:06Z</time>
      </trkpt>
      <trkpt lat="42.23719" lon="0.04027">
        <ele>731.5</ele>
        <time>2015-09-24T09:54:09Z</time>
      </trkpt>
      <trkpt lat="42.23717" lon="0.04025">
        <ele>731.6</ele>
        <time>2015-09-24T09:54:12Z</time>
      </trkpt>
      <trkpt lat="42.23714" lon="0.04023">
        <ele>731.8</ele>
        <time>2015-09-24T09:54:15Z</time>
      </trkpt>
      <trkpt lat="42.23712" lon="0.0402">
        <ele>731.9</ele>
        <time>2015-09-24T09:54:21Z</time>
      </trkpt>
      <trkpt lat="42.23709" lon="0.04018">
        <ele>732.1</ele>
        <time>2015-09-24T09:54:23Z</time>
      </trkpt>
      <trkpt lat="42.23706" lon="0.04014">
        <ele>732.2</ele>
        <time>2015-09-24T09:54:25Z</time>
      </trkpt>
      <trkpt lat="42.23703" lon="0.04011">
        <ele>732.4</ele>
        <time>2015-09-24T09:54:27Z</time>
      </trkpt>
      <trkpt lat="42.23699" lon="0.04007">
        <ele>732.6</ele>
        <time>2015-09-24T09:54:29Z</time>
      </trkpt>
      <trkpt lat="42.23696" lon="0.04003">
        <ele>732.8</ele>
        <time>2015-09-24T09:54:31Z</time>
      </trkpt>
      <trkpt lat="42.23694" lon="0.04001">
        <ele>732.9</ele>
        <time>2015-09-24T09:54:32Z</time>
      </trkpt>
      <trkpt lat="42.23691" lon="0.03998">
        <ele>733.1</ele>
        <time>2015-09-24T09:54:33Z</time>
      </trkpt>
      <trkpt lat="42.23689" lon="0.03995">
        <ele>733.2</ele>
        <time>2015-09-24T09:54:34Z</time>
      </trkpt>
      <trkpt lat="42.23687" lon="0.03993">
        <ele>733.4</ele>
        <time>2015-09-24T09:54:35Z</time>
      </trkpt>
      <trkpt lat="42.23685" lon="0.0399">
        <ele>733.6</ele>
        <time>2015-09-24T09:54:36Z</time>
      </trkpt>
      <trkpt lat="42.23683" lon="0.03987">
        <ele>733.8</ele>
        <time>2015-09-24T09:54:37Z</time>
      </trkpt>
      <trkpt lat="42.23681" lon="0.03984">
        <ele>734</ele>
        <time>2015-09-24T09:54:38Z</time>
      </trkpt>
      <trkpt lat="42.23678" lon="0.03981">
        <ele>734.2</ele>
        <time>2015-09-24T09:54:39Z</time>
      </trkpt>
      <trkpt lat="42.23675" lon="0.03978">
        <ele>734.3</ele>
        <time>2015-09-24T09:54:40Z</time>
      </trkpt>
      <trkpt lat="42.23672" lon="0.03976">
        <ele>734.5</ele>
        <time>2015-09-24T09:54:41Z</time>
      </trkpt>
      <trkpt lat="42.23669" lon="0.03974">
        <ele>734.6</ele>
        <time>2015-09-24T09:54:42Z</time>
      </trkpt>
      <trkpt lat="42.23665" lon="0.03971">
        <ele>734.7</ele>
        <time>2015-09-24T09:54:43Z</time>
      </trkpt>
      <trkpt lat="42.23661" lon="0.03968">
        <ele>734.9</ele>
        <time>2015-09-24T09:54:44Z</time>
      </trkpt>
      <trkpt lat="42.23657" lon="0.03966">
        <ele>735</ele>
        <time>2015-09-24T09:54:45Z</time>
      </trkpt>
      <trkpt lat="42.23652" lon="0.03963">
        <ele>735.2</ele>
        <time>2015-09-24T09:54:46Z</time>
      </trkpt>
      <trkpt lat="42.23647" lon="0.0396">
        <ele>735.4</ele>
        <time>2015-09-24T09:54:47Z</time>
      </trkpt>
      <trkpt lat="42.23642" lon="0.03958">
        <ele>735.4</ele>
        <time>2015-09-24T09:54:48Z</time>
      </trkpt>
      <trkpt lat="42.23638" lon="0.03956">
        <ele>735.5</ele>
        <time>2015-09-24T09:54:49Z</time>
      </trkpt>
      <trkpt lat="42.23634" lon="0.03954">
        <ele>735.6</ele>
        <time>2015-09-24T09:54:50Z</time>
      </trkpt>
      <trkpt lat="42.2363" lon="0.03952">
        <ele>735.7</ele>
        <time>2015-09-24T09:54:51Z</time>
      </trkpt>
      <trkpt lat="42.23626" lon="0.0395">
        <ele>735.8</ele>
        <time>2015-09-24T09:54:52Z</time>
      </trkpt>
      <trkpt lat="42.23622" lon="0.03948">
        <ele>736</ele>
        <time>2015-09-24T09:54:54Z</time>
      </trkpt>
      <trkpt lat="42.23619" lon="0.03947">
        <ele>736.1</ele>
        <time>2015-09-24T09:54:55Z</time>
      </trkpt>
      <trkpt lat="42.23615" lon="0.03947">
        <ele>736.2</ele>
        <time>2015-09-24T09:54:56Z</time>
      </trkpt>
      <trkpt lat="42.23611" lon="0.03946">
        <ele>736.2</ele>
        <time>2015-09-24T09:54:57Z</time>
      </trkpt>
      <trkpt lat="42.23608" lon="0.03946">
        <ele>736.2</ele>
        <time>2015-09-24T09:54:58Z</time>
      </trkpt>
      <trkpt lat="42.23604" lon="0.03945">
        <ele>736.3</ele>
        <time>2015-09-24T09:54:59Z</time>
      </trkpt>
      <trkpt lat="42.236" lon="0.03945">
        <ele>736.4</ele>
        <time>2015-09-24T09:55:00Z</time>
      </trkpt>
      <trkpt lat="42.23596" lon="0.03944">
        <ele>736.5</ele>
        <time>2015-09-24T09:55:01Z</time>
      </trkpt>
      <trkpt lat="42.23592" lon="0.03943">
        <ele>736.6</ele>
        <time>2015-09-24T09:55:02Z</time>
      </trkpt>
      <trkpt lat="42.23588" lon="0.03942">
        <ele>736.7</ele>
        <time>2015-09-24T09:55:03Z</time>
      </trkpt>
      <trkpt lat="42.23584" lon="0.03941">
        <ele>736.9</ele>
        <time>2015-09-24T09:55:04Z</time>
      </trkpt>
      <trkpt lat="42.2358" lon="0.0394">
        <ele>737</ele>
        <time>2015-09-24T09:55:05Z</time>
      </trkpt>
      <trkpt lat="42.23576" lon="0.03938">
        <ele>737.2</ele>
        <time>2015-09-24T09:55:06Z</time>
      </trkpt>
      <trkpt lat="42.23572" lon="0.03936">
        <ele>737.5</ele>
        <time>2015-09-24T09:55:07Z</time>
      </trkpt>
      <trkpt lat="42.23568" lon="0.03934">
        <ele>737.8</ele>
        <time>2015-09-24T09:55:08Z</time>
      </trkpt>
      <trkpt lat="42.23564" lon="0.03931">
        <ele>738.1</ele>
        <time>2015-09-24T09:55:09Z</time>
      </trkpt>
      <trkpt lat="42.23561" lon="0.03929">
        <ele>738.3</ele>
        <time>2015-09-24T09:55:10Z</time>
      </trkpt>
      <trkpt lat="42.23557" lon="0.03927">
        <ele>738.6</ele>
        <time>2015-09-24T09:55:11Z</time>
      </trkpt>
      <trkpt lat="42.23553" lon="0.03925">
        <ele>738.9</ele>
        <time>2015-09-24T09:55:12Z</time>
      </trkpt>
      <trkpt lat="42.2355" lon="0.03924">
        <ele>739.1</ele>
        <time>2015-09-24T09:55:13Z</time>
      </trkpt>
      <trkpt lat="42.23544" lon="0.03922">
        <ele>739.3</ele>
        <time>2015-09-24T09:55:15Z</time>
      </trkpt>
      <trkpt lat="42.23539" lon="0.03921">
        <ele>739.5</ele>
        <time>2015-09-24T09:55:17Z</time>
      </trkpt>
      <trkpt lat="42.23534" lon="0.0392">
        <ele>739.7</ele>
        <time>2015-09-24T09:55:19Z</time>
      </trkpt>
      <trkpt lat="42.23531" lon="0.0392">
        <ele>739.8</ele>
        <time>2015-09-24T09:55:20Z</time>
      </trkpt>
      <trkpt lat="42.23527" lon="0.0392">
        <ele>739.9</ele>
        <time>2015-09-24T09:55:21Z</time>
      </trkpt>
      <trkpt lat="42.23524" lon="0.03919">
        <ele>740</ele>
        <time>2015-09-24T09:55:22Z</time>
      </trkpt>
      <trkpt lat="42.23521" lon="0.03919">
        <ele>740.1</ele>
        <time>2015-09-24T09:55:23Z</time>
      </trkpt>
      <trkpt lat="42.23518" lon="0.03918">
        <ele>740.3</ele>
        <time>2015-09-24T09:55:24Z</time>
      </trkpt>
      <trkpt lat="42.23515" lon="0.03917">
        <ele>740.4</ele>
        <time>2015-09-24T09:55:25Z</time>
      </trkpt>
      <trkpt lat="42.23512" lon="0.03917">
        <ele>740.5</ele>
        <time>2015-09-24T09:55:26Z</time>
      </trkpt>
      <trkpt lat="42.23509" lon="0.03917">
        <ele>740.5</ele>
        <time>2015-09-24T09:55:27Z</time>
      </trkpt>
      <trkpt lat="42.23507" lon="0.03917">
        <ele>740.6</ele>
        <time>2015-09-24T09:55:28Z</time>
      </trkpt>
      <trkpt lat="42.23504" lon="0.03916">
        <ele>740.7</ele>
        <time>2015-09-24T09:55:29Z</time>
      </trkpt>
      <trkpt lat="42.23499" lon="0.03915">
        <ele>740.9</ele>
        <time>2015-09-24T09:55:31Z</time>
      </trkpt>
      <trkpt lat="42.23496" lon="0.03914">
        <ele>741.1</ele>
        <time>2015-09-24T09:55:33Z</time>
      </trkpt>
      <trkpt lat="42.23491" lon="0.03913">
        <ele>741.3</ele>
        <time>2015-09-24T09:55:35Z</time>
      </trkpt>
      <trkpt lat="42.23487" lon="0.03911">
        <ele>741.6</ele>
        <time>2015-09-24T09:55:37Z</time>
      </trkpt>
      <trkpt lat="42.23483" lon="0.03909">
        <ele>741.9</ele>
        <time>2015-09-24T09:55:39Z</time>
      </trkpt>
      <trkpt lat="42.2348" lon="0.03907">
        <ele>742.2</ele>
        <time>2015-09-24T09:55:41Z</time>
      </trkpt>
      <trkpt lat="42.23476" lon="0.03905">
        <ele>742.5</ele>
        <time>2015-09-24T09:55:43Z</time>
      </trkpt>
      <trkpt lat="42.23472" lon="0.03903">
        <ele>742.8</ele>
        <time>2015-09-24T09:55:51Z</time>
      </trkpt>
      <trkpt lat="42.23468" lon="0.039">
        <ele>743.1</ele>
        <time>2015-09-24T09:55:53Z</time>
      </trkpt>
      <trkpt lat="42.23464" lon="0.03898">
        <ele>743.5</ele>
        <time>2015-09-24T09:55:55Z</time>
      </trkpt>
      <trkpt lat="42.23459" lon="0.03896">
        <ele>743.7</ele>
        <time>2015-09-24T09:55:57Z</time>
      </trkpt>
      <trkpt lat="42.23455" lon="0.03894">
        <ele>744</ele>
        <time>2015-09-24T09:55:59Z</time>
      </trkpt>
      <trkpt lat="42.23451" lon="0.03893">
        <ele>744.3</ele>
        <time>2015-09-24T09:56:01Z</time>
      </trkpt>
      <trkpt lat="42.23447" lon="0.0389">
        <ele>744.6</ele>
        <time>2015-09-24T09:56:03Z</time>
      </trkpt>
      <trkpt lat="42.23442" lon="0.03888">
        <ele>745</ele>
        <time>2015-09-24T09:56:05Z</time>
      </trkpt>
      <trkpt lat="42.2344" lon="0.03886">
        <ele>745.3</ele>
        <time>2015-09-24T09:56:06Z</time>
      </trkpt>
      <trkpt lat="42.23437" lon="0.03884">
        <ele>745.5</ele>
        <time>2015-09-24T09:56:07Z</time>
      </trkpt>
      <trkpt lat="42.23433" lon="0.03883">
        <ele>745.8</ele>
        <time>2015-09-24T09:56:08Z</time>
      </trkpt>
      <trkpt lat="42.2343" lon="0.03882">
        <ele>746</ele>
        <time>2015-09-24T09:56:09Z</time>
      </trkpt>
      <trkpt lat="42.23427" lon="0.03881">
        <ele>746.1</ele>
        <time>2015-09-24T09:56:10Z</time>
      </trkpt>
      <trkpt lat="42.23424" lon="0.0388">
        <ele>746.3</ele>
        <time>2015-09-24T09:56:11Z</time>
      </trkpt>
      <trkpt lat="42.23421" lon="0.0388">
        <ele>746.4</ele>
        <time>2015-09-24T09:56:12Z</time>
      </trkpt>
      <trkpt lat="42.23417" lon="0.03881">
        <ele>746.4</ele>
        <time>2015-09-24T09:56:13Z</time>
      </trkpt>
      <trkpt lat="42.23414" lon="0.03881">
        <ele>746.4</ele>
        <time>2015-09-24T09:56:14Z</time>
      </trkpt>
      <trkpt lat="42.2341" lon="0.03882">
        <ele>746.4</ele>
        <time>2015-09-24T09:56:15Z</time>
      </trkpt>
      <trkpt lat="42.23407" lon="0.03882">
        <ele>746.4</ele>
        <time>2015-09-24T09:56:16Z</time>
      </trkpt>
      <trkpt lat="42.23402" lon="0.03883">
        <ele>746.5</ele>
        <time>2015-09-24T09:56:18Z</time>
      </trkpt>
      <trkpt lat="42.23397" lon="0.03884">
        <ele>746.5</ele>
        <time>2015-09-24T09:56:20Z</time>
      </trkpt>
      <trkpt lat="42.23392" lon="0.03884">
        <ele>746.6</ele>
        <time>2015-09-24T09:56:22Z</time>
      </trkpt>
      <trkpt lat="42.23387" lon="0.03883">
        <ele>746.8</ele>
        <time>2015-09-24T09:56:24Z</time>
      </trkpt>
      <trkpt lat="42.23382" lon="0.03882">
        <ele>747.1</ele>
        <time>2015-09-24T09:56:26Z</time>
      </trkpt>
      <trkpt lat="42.23377" lon="0.03882">
        <ele>747.2</ele>
        <time>2015-09-24T09:56:28Z</time>
      </trkpt>
      <trkpt lat="42.23373" lon="0.0388">
        <ele>747.6</ele>
        <time>2015-09-24T09:56:30Z</time>
      </trkpt>
      <trkpt lat="42.23368" lon="0.03878">
        <ele>748.1</ele>
        <time>2015-09-24T09:56:32Z</time>
      </trkpt>
      <trkpt lat="42.23363" lon="0.03876">
        <ele>748.5</ele>
        <time>2015-09-24T09:56:34Z</time>
      </trkpt>
      <trkpt lat="42.23359" lon="0.03873">
        <ele>748.9</ele>
        <time>2015-09-24T09:56:36Z</time>
      </trkpt>
      <trkpt lat="42.23355" lon="0.0387">
        <ele>749.4</ele>
        <time>2015-09-24T09:56:38Z</time>
      </trkpt>
      <trkpt lat="42.23351" lon="0.03867">
        <ele>749.9</ele>
        <time>2015-09-24T09:56:40Z</time>
      </trkpt>
      <trkpt lat="42.23346" lon="0.03865">
        <ele>750.4</ele>
        <time>2015-09-24T09:56:42Z</time>
      </trkpt>
      <trkpt lat="42.23341" lon="0.03863">
        <ele>750.8</ele>
        <time>2015-09-24T09:56:44Z</time>
      </trkpt>
      <trkpt lat="42.23338" lon="0.03863">
        <ele>750.9</ele>
        <time>2015-09-24T09:56:47Z</time>
      </trkpt>
      <trkpt lat="42.23336" lon="0.03862">
        <ele>751.2</ele>
        <time>2015-09-24T09:56:50Z</time>
      </trkpt>
      <trkpt lat="42.23334" lon="0.03859">
        <ele>751.6</ele>
        <time>2015-09-24T09:56:52Z</time>
      </trkpt>
      <trkpt lat="42.23329" lon="0.03855">
        <ele>752.1</ele>
        <time>2015-09-24T09:56:54Z</time>
      </trkpt>
      <trkpt lat="42.23324" lon="0.03854">
        <ele>752.5</ele>
        <time>2015-09-24T09:56:56Z</time>
      </trkpt>
      <trkpt lat="42.23319" lon="0.03854">
        <ele>752.7</ele>
        <time>2015-09-24T09:56:58Z</time>
      </trkpt>
      <trkpt lat="42.23315" lon="0.03855">
        <ele>752.8</ele>
        <time>2015-09-24T09:57:00Z</time>
      </trkpt>
      <trkpt lat="42.23311" lon="0.03855">
        <ele>753</ele>
        <time>2015-09-24T09:57:02Z</time>
      </trkpt>
      <trkpt lat="42.23308" lon="0.03855">
        <ele>753.2</ele>
        <time>2015-09-24T09:57:05Z</time>
      </trkpt>
      <trkpt lat="42.23304" lon="0.03853">
        <ele>753.6</ele>
        <time>2015-09-24T09:57:08Z</time>
      </trkpt>
      <trkpt lat="42.23302" lon="0.0385">
        <ele>753.9</ele>
        <time>2015-09-24T09:57:10Z</time>
      </trkpt>
      <trkpt lat="42.233" lon="0.03847">
        <ele>754.3</ele>
        <time>2015-09-24T09:57:12Z</time>
      </trkpt>
      <trkpt lat="42.23298" lon="0.03843">
        <ele>754.7</ele>
        <time>2015-09-24T09:57:14Z</time>
      </trkpt>
      <trkpt lat="42.23296" lon="0.0384">
        <ele>755.2</ele>
        <time>2015-09-24T09:57:16Z</time>
      </trkpt>
      <trkpt lat="42.23294" lon="0.03836">
        <ele>755.6</ele>
        <time>2015-09-24T09:57:18Z</time>
      </trkpt>
      <trkpt lat="42.23292" lon="0.03833">
        <ele>756.1</ele>
        <time>2015-09-24T09:57:20Z</time>
      </trkpt>
      <trkpt lat="42.23289" lon="0.03831">
        <ele>756.4</ele>
        <time>2015-09-24T09:57:22Z</time>
      </trkpt>
      <trkpt lat="42.23286" lon="0.0383">
        <ele>756.6</ele>
        <time>2015-09-24T09:57:24Z</time>
      </trkpt>
      <trkpt lat="42.23283" lon="0.03829">
        <ele>756.9</ele>
        <time>2015-09-24T09:57:26Z</time>
      </trkpt>
      <trkpt lat="42.2328" lon="0.03829">
        <ele>757</ele>
        <time>2015-09-24T09:57:39Z</time>
      </trkpt>
      <trkpt lat="42.23276" lon="0.03828">
        <ele>757.3</ele>
        <time>2015-09-24T09:57:41Z</time>
      </trkpt>
      <trkpt lat="42.23271" lon="0.03828">
        <ele>757.6</ele>
        <time>2015-09-24T09:57:43Z</time>
      </trkpt>
      <trkpt lat="42.23267" lon="0.03826">
        <ele>758</ele>
        <time>2015-09-24T09:57:45Z</time>
      </trkpt>
      <trkpt lat="42.23263" lon="0.03825">
        <ele>758.3</ele>
        <time>2015-09-24T09:57:47Z</time>
      </trkpt>
      <trkpt lat="42.23258" lon="0.03824">
        <ele>758.7</ele>
        <time>2015-09-24T09:57:49Z</time>
      </trkpt>
      <trkpt lat="42.23254" lon="0.03822">
        <ele>759.1</ele>
        <time>2015-09-24T09:57:51Z</time>
      </trkpt>
      <trkpt lat="42.2325" lon="0.0382">
        <ele>759.5</ele>
        <time>2015-09-24T09:57:53Z</time>
      </trkpt>
      <trkpt lat="42.23247" lon="0.03817">
        <ele>759.9</ele>
        <time>2015-09-24T09:57:55Z</time>
      </trkpt>
      <trkpt lat="42.23243" lon="0.03813">
        <ele>760.4</ele>
        <time>2015-09-24T09:57:57Z</time>
      </trkpt>
      <trkpt lat="42.2324" lon="0.0381">
        <ele>760.9</ele>
        <time>2015-09-24T09:57:59Z</time>
      </trkpt>
      <trkpt lat="42.23237" lon="0.03806">
        <ele>761.3</ele>
        <time>2015-09-24T09:58:01Z</time>
      </trkpt>
      <trkpt lat="42.23234" lon="0.03803">
        <ele>761.8</ele>
        <time>2015-09-24T09:58:03Z</time>
      </trkpt>
      <trkpt lat="42.23231" lon="0.038">
        <ele>762.2</ele>
        <time>2015-09-24T09:58:05Z</time>
      </trkpt>
      <trkpt lat="42.23228" lon="0.03798">
        <ele>762.5</ele>
        <time>2015-09-24T09:58:07Z</time>
      </trkpt>
      <trkpt lat="42.23225" lon="0.03796">
        <ele>762.8</ele>
        <time>2015-09-24T09:58:09Z</time>
      </trkpt>
      <trkpt lat="42.23221" lon="0.03794">
        <ele>763.1</ele>
        <time>2015-09-24T09:58:11Z</time>
      </trkpt>
      <trkpt lat="42.23219" lon="0.03792">
        <ele>763.5</ele>
        <time>2015-09-24T09:58:13Z</time>
      </trkpt>
      <trkpt lat="42.23216" lon="0.03789">
        <ele>763.9</ele>
        <time>2015-09-24T09:58:15Z</time>
      </trkpt>
      <trkpt lat="42.23214" lon="0.03786">
        <ele>764.2</ele>
        <time>2015-09-24T09:58:17Z</time>
      </trkpt>
      <trkpt lat="42.23212" lon="0.03782">
        <ele>764.6</ele>
        <time>2015-09-24T09:58:19Z</time>
      </trkpt>
      <trkpt lat="42.23209" lon="0.03779">
        <ele>765</ele>
        <time>2015-09-24T09:58:21Z</time>
      </trkpt>
      <trkpt lat="42.23207" lon="0.03776">
        <ele>765.4</ele>
        <time>2015-09-24T09:58:23Z</time>
      </trkpt>
      <trkpt lat="42.23204" lon="0.03773">
        <ele>765.7</ele>
        <time>2015-09-24T09:58:25Z</time>
      </trkpt>
      <trkpt lat="42.23202" lon="0.0377">
        <ele>766</ele>
        <time>2015-09-24T09:58:27Z</time>
      </trkpt>
      <trkpt lat="42.23199" lon="0.03767">
        <ele>766.4</ele>
        <time>2015-09-24T09:58:29Z</time>
      </trkpt>
      <trkpt lat="42.23197" lon="0.03764">
        <ele>766.7</ele>
        <time>2015-09-24T09:58:31Z</time>
      </trkpt>
      <trkpt lat="42.23195" lon="0.03761">
        <ele>767</ele>
        <time>2015-09-24T09:58:33Z</time>
      </trkpt>
      <trkpt lat="42.23192" lon="0.03759">
        <ele>767.4</ele>
        <time>2015-09-24T09:58:35Z</time>
      </trkpt>
      <trkpt lat="42.2319" lon="0.03756">
        <ele>767.7</ele>
        <time>2015-09-24T09:58:37Z</time>
      </trkpt>
      <trkpt lat="42.23188" lon="0.03753">
        <ele>768</ele>
        <time>2015-09-24T09:58:39Z</time>
      </trkpt>
      <trkpt lat="42.23185" lon="0.0375">
        <ele>768.3</ele>
        <time>2015-09-24T09:58:41Z</time>
      </trkpt>
      <trkpt lat="42.23183" lon="0.03747">
        <ele>768.7</ele>
        <time>2015-09-24T09:58:43Z</time>
      </trkpt>
      <trkpt lat="42.2318" lon="0.03745">
        <ele>768.9</ele>
        <time>2015-09-24T09:58:45Z</time>
      </trkpt>
      <trkpt lat="42.23177" lon="0.03745">
        <ele>769.1</ele>
        <time>2015-09-24T09:58:47Z</time>
      </trkpt>
      <trkpt lat="42.23174" lon="0.03745">
        <ele>769.2</ele>
        <time>2015-09-24T09:58:49Z</time>
      </trkpt>
      <trkpt lat="42.2317" lon="0.03745">
        <ele>769.3</ele>
        <time>2015-09-24T09:58:51Z</time>
      </trkpt>
      <trkpt lat="42.23167" lon="0.03743">
        <ele>769.6</ele>
        <time>2015-09-24T09:58:53Z</time>
      </trkpt>
      <trkpt lat="42.23164" lon="0.03741">
        <ele>769.9</ele>
        <time>2015-09-24T09:58:55Z</time>
      </trkpt>
      <trkpt lat="42.23161" lon="0.03738">
        <ele>770.2</ele>
        <time>2015-09-24T09:58:57Z</time>
      </trkpt>
      <trkpt lat="42.23158" lon="0.03736">
        <ele>770.5</ele>
        <time>2015-09-24T09:58:59Z</time>
      </trkpt>
      <trkpt lat="42.23155" lon="0.03735">
        <ele>770.7</ele>
        <time>2015-09-24T09:59:01Z</time>
      </trkpt>
      <trkpt lat="42.23152" lon="0.03733">
        <ele>771</ele>
        <time>2015-09-24T09:59:03Z</time>
      </trkpt>
      <trkpt lat="42.23149" lon="0.03731">
        <ele>771.2</ele>
        <time>2015-09-24T09:59:05Z</time>
      </trkpt>
      <trkpt lat="42.23146" lon="0.03729">
        <ele>771.5</ele>
        <time>2015-09-24T09:59:07Z</time>
      </trkpt>
      <trkpt lat="42.23142" lon="0.03727">
        <ele>771.8</ele>
        <time>2015-09-24T09:59:09Z</time>
      </trkpt>
      <trkpt lat="42.23139" lon="0.03725">
        <ele>772.1</ele>
        <time>2015-09-24T09:59:11Z</time>
      </trkpt>
      <trkpt lat="42.23136" lon="0.03722">
        <ele>772.4</ele>
        <time>2015-09-24T09:59:13Z</time>
      </trkpt>
      <trkpt lat="42.23132" lon="0.0372">
        <ele>772.8</ele>
        <time>2015-09-24T09:59:15Z</time>
      </trkpt>
      <trkpt lat="42.23129" lon="0.03717">
        <ele>773.1</ele>
        <time>2015-09-24T09:59:17Z</time>
      </trkpt>
      <trkpt lat="42.23125" lon="0.03715">
        <ele>773.4</ele>
        <time>2015-09-24T09:59:19Z</time>
      </trkpt>
      <trkpt lat="42.23121" lon="0.03714">
        <ele>773.4</ele>
        <time>2015-09-24T09:59:21Z</time>
      </trkpt>
      <trkpt lat="42.23117" lon="0.0371">
        <ele>773.6</ele>
        <time>2015-09-24T09:59:23Z</time>
      </trkpt>
      <trkpt lat="42.23113" lon="0.03705">
        <ele>773.7</ele>
        <time>2015-09-24T09:59:25Z</time>
      </trkpt>
      <trkpt lat="42.2311" lon="0.037">
        <ele>773.8</ele>
        <time>2015-09-24T09:59:27Z</time>
      </trkpt>
      <trkpt lat="42.23106" lon="0.03695">
        <ele>773.8</ele>
        <time>2015-09-24T09:59:29Z</time>
      </trkpt>
      <trkpt lat="42.23102" lon="0.03691">
        <ele>773.8</ele>
        <time>2015-09-24T09:59:31Z</time>
      </trkpt>
      <trkpt lat="42.23099" lon="0.0369">
        <ele>773.8</ele>
        <time>2015-09-24T09:59:32Z</time>
      </trkpt>
      <trkpt lat="42.23096" lon="0.03689">
        <ele>773.8</ele>
        <time>2015-09-24T09:59:33Z</time>
      </trkpt>
      <trkpt lat="42.23094" lon="0.03688">
        <ele>773.7</ele>
        <time>2015-09-24T09:59:34Z</time>
      </trkpt>
      <trkpt lat="42.23091" lon="0.03687">
        <ele>773.6</ele>
        <time>2015-09-24T09:59:35Z</time>
      </trkpt>
      <trkpt lat="42.23088" lon="0.03686">
        <ele>773.6</ele>
        <time>2015-09-24T09:59:36Z</time>
      </trkpt>
      <trkpt lat="42.23085" lon="0.03686">
        <ele>773.5</ele>
        <time>2015-09-24T09:59:37Z</time>
      </trkpt>
      <trkpt lat="42.2308" lon="0.03684">
        <ele>773.4</ele>
        <time>2015-09-24T09:59:39Z</time>
      </trkpt>
      <trkpt lat="42.23077" lon="0.03681">
        <ele>773.5</ele>
        <time>2015-09-24T09:59:41Z</time>
      </trkpt>
      <trkpt lat="42.23074" lon="0.03677">
        <ele>773.6</ele>
        <time>2015-09-24T09:59:43Z</time>
      </trkpt>
      <trkpt lat="42.23072" lon="0.03672">
        <ele>773.7</ele>
        <time>2015-09-24T09:59:45Z</time>
      </trkpt>
      <trkpt lat="42.23069" lon="0.03668">
        <ele>773.8</ele>
        <time>2015-09-24T09:59:47Z</time>
      </trkpt>
      <trkpt lat="42.23066" lon="0.03662">
        <ele>773.9</ele>
        <time>2015-09-24T09:59:49Z</time>
      </trkpt>
      <trkpt lat="42.23065" lon="0.03658">
        <ele>774.1</ele>
        <time>2015-09-24T09:59:51Z</time>
      </trkpt>
      <trkpt lat="42.23068" lon="0.03657">
        <ele>774.2</ele>
        <time>2015-09-24T09:59:56Z</time>
      </trkpt>
      <trkpt lat="42.2307" lon="0.03656">
        <ele>774.3</ele>
        <time>2015-09-24T10:00:25Z</time>
      </trkpt>
      <trkpt lat="42.23074" lon="0.03655">
        <ele>774.5</ele>
        <time>2015-09-24T10:00:27Z</time>
      </trkpt>
      <trkpt lat="42.23077" lon="0.03654">
        <ele>774.6</ele>
        <time>2015-09-24T10:00:29Z</time>
      </trkpt>
      <trkpt lat="42.2308" lon="0.03653">
        <ele>774.7</ele>
        <time>2015-09-24T10:00:31Z</time>
      </trkpt>
      <trkpt lat="42.23082" lon="0.03651">
        <ele>774.9</ele>
        <time>2015-09-24T10:00:33Z</time>
      </trkpt>
      <trkpt lat="42.23085" lon="0.0365">
        <ele>775</ele>
        <time>2015-09-24T10:01:27Z</time>
      </trkpt>
      <trkpt lat="42.23087" lon="0.03648">
        <ele>775.2</ele>
        <time>2015-09-24T10:01:29Z</time>
      </trkpt>
      <trkpt lat="42.23091" lon="0.03643">
        <ele>775.4</ele>
        <time>2015-09-24T10:01:31Z</time>
      </trkpt>
      <trkpt lat="42.23094" lon="0.03639">
        <ele>775.7</ele>
        <time>2015-09-24T10:01:33Z</time>
      </trkpt>
      <trkpt lat="42.23098" lon="0.03635">
        <ele>776</ele>
        <time>2015-09-24T10:01:35Z</time>
      </trkpt>
      <trkpt lat="42.231" lon="0.03633">
        <ele>776.1</ele>
        <time>2015-09-24T10:01:36Z</time>
      </trkpt>
      <trkpt lat="42.23103" lon="0.0363">
        <ele>776.3</ele>
        <time>2015-09-24T10:01:37Z</time>
      </trkpt>
      <trkpt lat="42.23105" lon="0.03629">
        <ele>776.4</ele>
        <time>2015-09-24T10:01:38Z</time>
      </trkpt>
      <trkpt lat="42.23108" lon="0.03626">
        <ele>776.5</ele>
        <time>2015-09-24T10:01:39Z</time>
      </trkpt>
      <trkpt lat="42.2311" lon="0.03625">
        <ele>776.7</ele>
        <time>2015-09-24T10:01:40Z</time>
      </trkpt>
      <trkpt lat="42.23114" lon="0.03621">
        <ele>776.9</ele>
        <time>2015-09-24T10:01:42Z</time>
      </trkpt>
      <trkpt lat="42.23118" lon="0.03616">
        <ele>777.2</ele>
        <time>2015-09-24T10:01:44Z</time>
      </trkpt>
      <trkpt lat="42.23121" lon="0.03612">
        <ele>777.4</ele>
        <time>2015-09-24T10:01:46Z</time>
      </trkpt>
      <trkpt lat="42.23125" lon="0.03607">
        <ele>777.6</ele>
        <time>2015-09-24T10:01:48Z</time>
      </trkpt>
      <trkpt lat="42.23129" lon="0.03604">
        <ele>777.8</ele>
        <time>2015-09-24T10:01:50Z</time>
      </trkpt>
      <trkpt lat="42.23132" lon="0.03602">
        <ele>777.9</ele>
        <time>2015-09-24T10:01:51Z</time>
      </trkpt>
      <trkpt lat="42.23136" lon="0.03598">
        <ele>778.1</ele>
        <time>2015-09-24T10:01:53Z</time>
      </trkpt>
      <trkpt lat="42.2314" lon="0.03594">
        <ele>778.2</ele>
        <time>2015-09-24T10:01:55Z</time>
      </trkpt>
      <trkpt lat="42.23143" lon="0.0359">
        <ele>778.4</ele>
        <time>2015-09-24T10:01:57Z</time>
      </trkpt>
      <trkpt lat="42.23147" lon="0.03585">
        <ele>778.6</ele>
        <time>2015-09-24T10:01:59Z</time>
      </trkpt>
      <trkpt lat="42.23151" lon="0.0358">
        <ele>778.8</ele>
        <time>2015-09-24T10:02:01Z</time>
      </trkpt>
      <trkpt lat="42.23154" lon="0.03575">
        <ele>778.9</ele>
        <time>2015-09-24T10:02:03Z</time>
      </trkpt>
      <trkpt lat="42.23157" lon="0.0357">
        <ele>779.1</ele>
        <time>2015-09-24T10:02:05Z</time>
      </trkpt>
      <trkpt lat="42.2316" lon="0.03564">
        <ele>779.3</ele>
        <time>2015-09-24T10:02:07Z</time>
      </trkpt>
      <trkpt lat="42.23163" lon="0.03559">
        <ele>779.5</ele>
        <time>2015-09-24T10:02:09Z</time>
      </trkpt>
      <trkpt lat="42.23165" lon="0.03554">
        <ele>779.6</ele>
        <time>2015-09-24T10:02:11Z</time>
      </trkpt>
      <trkpt lat="42.23169" lon="0.0355">
        <ele>779.7</ele>
        <time>2015-09-24T10:02:13Z</time>
      </trkpt>
      <trkpt lat="42.23173" lon="0.03547">
        <ele>779.9</ele>
        <time>2015-09-24T10:02:15Z</time>
      </trkpt>
      <trkpt lat="42.23177" lon="0.03543">
        <ele>780</ele>
        <time>2015-09-24T10:02:17Z</time>
      </trkpt>
      <trkpt lat="42.23182" lon="0.03542">
        <ele>780</ele>
        <time>2015-09-24T10:02:19Z</time>
      </trkpt>
      <trkpt lat="42.23187" lon="0.03543">
        <ele>780</ele>
        <time>2015-09-24T10:02:21Z</time>
      </trkpt>
      <trkpt lat="42.23193" lon="0.03543">
        <ele>780</ele>
        <time>2015-09-24T10:02:23Z</time>
      </trkpt>
      <trkpt lat="42.23198" lon="0.03541">
        <ele>780</ele>
        <time>2015-09-24T10:02:25Z</time>
      </trkpt>
      <trkpt lat="42.23202" lon="0.03538">
        <ele>780.3</ele>
        <time>2015-09-24T10:02:27Z</time>
      </trkpt>
      <trkpt lat="42.23207" lon="0.03535">
        <ele>780.6</ele>
        <time>2015-09-24T10:02:29Z</time>
      </trkpt>
      <trkpt lat="42.23212" lon="0.03531">
        <ele>781</ele>
        <time>2015-09-24T10:02:31Z</time>
      </trkpt>
      <trkpt lat="42.23216" lon="0.03527">
        <ele>781.6</ele>
        <time>2015-09-24T10:02:33Z</time>
      </trkpt>
      <trkpt lat="42.2322" lon="0.03523">
        <ele>782.1</ele>
        <time>2015-09-24T10:02:35Z</time>
      </trkpt>
      <trkpt lat="42.23224" lon="0.03519">
        <ele>782.6</ele>
        <time>2015-09-24T10:02:37Z</time>
      </trkpt>
      <trkpt lat="42.23228" lon="0.03515">
        <ele>783</ele>
        <time>2015-09-24T10:02:39Z</time>
      </trkpt>
      <trkpt lat="42.23232" lon="0.03512">
        <ele>783.5</ele>
        <time>2015-09-24T10:02:41Z</time>
      </trkpt>
      <trkpt lat="42.23235" lon="0.03507">
        <ele>783.9</ele>
        <time>2015-09-24T10:02:43Z</time>
      </trkpt>
      <trkpt lat="42.23238" lon="0.03503">
        <ele>784.4</ele>
        <time>2015-09-24T10:02:45Z</time>
      </trkpt>
      <trkpt lat="42.23241" lon="0.03498">
        <ele>784.8</ele>
        <time>2015-09-24T10:02:47Z</time>
      </trkpt>
      <trkpt lat="42.23244" lon="0.03494">
        <ele>785.2</ele>
        <time>2015-09-24T10:02:49Z</time>
      </trkpt>
      <trkpt lat="42.23247" lon="0.03491">
        <ele>785.5</ele>
        <time>2015-09-24T10:02:51Z</time>
      </trkpt>
      <trkpt lat="42.23248" lon="0.03487">
        <ele>785.9</ele>
        <time>2015-09-24T10:02:53Z</time>
      </trkpt>
      <trkpt lat="42.23247" lon="0.03482">
        <ele>786.2</ele>
        <time>2015-09-24T10:02:55Z</time>
      </trkpt>
      <trkpt lat="42.23247" lon="0.03478">
        <ele>786.5</ele>
        <time>2015-09-24T10:02:57Z</time>
      </trkpt>
      <trkpt lat="42.23247" lon="0.03472">
        <ele>786.9</ele>
        <time>2015-09-24T10:02:59Z</time>
      </trkpt>
      <trkpt lat="42.23247" lon="0.03466">
        <ele>787.4</ele>
        <time>2015-09-24T10:03:01Z</time>
      </trkpt>
      <trkpt lat="42.23247" lon="0.03461">
        <ele>787.8</ele>
        <time>2015-09-24T10:03:03Z</time>
      </trkpt>
      <trkpt lat="42.23248" lon="0.03455">
        <ele>788.1</ele>
        <time>2015-09-24T10:03:05Z</time>
      </trkpt>
      <trkpt lat="42.2325" lon="0.0345">
        <ele>788.3</ele>
        <time>2015-09-24T10:03:07Z</time>
      </trkpt>
      <trkpt lat="42.23253" lon="0.03445">
        <ele>788.5</ele>
        <time>2015-09-24T10:03:09Z</time>
      </trkpt>
      <trkpt lat="42.23257" lon="0.03441">
        <ele>788.7</ele>
        <time>2015-09-24T10:03:11Z</time>
      </trkpt>
      <trkpt lat="42.2326" lon="0.03437">
        <ele>788.9</ele>
        <time>2015-09-24T10:03:13Z</time>
      </trkpt>
      <trkpt lat="42.23264" lon="0.03434">
        <ele>789</ele>
        <time>2015-09-24T10:03:15Z</time>
      </trkpt>
      <trkpt lat="42.23268" lon="0.03432">
        <ele>789.1</ele>
        <time>2015-09-24T10:03:17Z</time>
      </trkpt>
      <trkpt lat="42.23271" lon="0.03429">
        <ele>789.2</ele>
        <time>2015-09-24T10:03:19Z</time>
      </trkpt>
      <trkpt lat="42.23275" lon="0.03427">
        <ele>789.3</ele>
        <time>2015-09-24T10:03:21Z</time>
      </trkpt>
      <trkpt lat="42.23279" lon="0.03426">
        <ele>789.3</ele>
        <time>2015-09-24T10:03:23Z</time>
      </trkpt>
      <trkpt lat="42.23282" lon="0.03423">
        <ele>789.4</ele>
        <time>2015-09-24T10:03:25Z</time>
      </trkpt>
      <trkpt lat="42.23286" lon="0.03421">
        <ele>789.4</ele>
        <time>2015-09-24T10:03:27Z</time>
      </trkpt>
      <trkpt lat="42.23289" lon="0.03419">
        <ele>789.5</ele>
        <time>2015-09-24T10:03:29Z</time>
      </trkpt>
      <trkpt lat="42.23292" lon="0.03418">
        <ele>789.5</ele>
        <time>2015-09-24T10:03:31Z</time>
      </trkpt>
      <trkpt lat="42.23294" lon="0.03416">
        <ele>789.5</ele>
        <time>2015-09-24T10:03:40Z</time>
      </trkpt>
      <trkpt lat="42.23297" lon="0.03414">
        <ele>789.6</ele>
        <time>2015-09-24T10:03:43Z</time>
      </trkpt>
      <trkpt lat="42.23299" lon="0.03412">
        <ele>789.6</ele>
        <time>2015-09-24T10:03:46Z</time>
      </trkpt>
      <trkpt lat="42.23303" lon="0.03409">
        <ele>789.6</ele>
        <time>2015-09-24T10:03:49Z</time>
      </trkpt>
      <trkpt lat="42.23306" lon="0.03406">
        <ele>789.7</ele>
        <time>2015-09-24T10:03:51Z</time>
      </trkpt>
      <trkpt lat="42.2331" lon="0.03403">
        <ele>789.7</ele>
        <time>2015-09-24T10:03:53Z</time>
      </trkpt>
      <trkpt lat="42.23313" lon="0.034">
        <ele>789.8</ele>
        <time>2015-09-24T10:03:55Z</time>
      </trkpt>
      <trkpt lat="42.23317" lon="0.03397">
        <ele>789.8</ele>
        <time>2015-09-24T10:03:57Z</time>
      </trkpt>
      <trkpt lat="42.2332" lon="0.03395">
        <ele>789.8</ele>
        <time>2015-09-24T10:03:59Z</time>
      </trkpt>
      <trkpt lat="42.23324" lon="0.03391">
        <ele>789.9</ele>
        <time>2015-09-24T10:04:01Z</time>
      </trkpt>
      <trkpt lat="42.23329" lon="0.03387">
        <ele>789.9</ele>
        <time>2015-09-24T10:04:03Z</time>
      </trkpt>
      <trkpt lat="42.23332" lon="0.03382">
        <ele>790</ele>
        <time>2015-09-24T10:04:05Z</time>
      </trkpt>
      <trkpt lat="42.23336" lon="0.03377">
        <ele>790</ele>
        <time>2015-09-24T10:04:07Z</time>
      </trkpt>
      <trkpt lat="42.2334" lon="0.03372">
        <ele>790.2</ele>
        <time>2015-09-24T10:04:09Z</time>
      </trkpt>
      <trkpt lat="42.23345" lon="0.03369">
        <ele>790.5</ele>
        <time>2015-09-24T10:04:11Z</time>
      </trkpt>
      <trkpt lat="42.23347" lon="0.03367">
        <ele>790.6</ele>
        <time>2015-09-24T10:04:12Z</time>
      </trkpt>
      <trkpt lat="42.2335" lon="0.03365">
        <ele>790.8</ele>
        <time>2015-09-24T10:04:13Z</time>
      </trkpt>
      <trkpt lat="42.23352" lon="0.03363">
        <ele>790.9</ele>
        <time>2015-09-24T10:04:14Z</time>
      </trkpt>
      <trkpt lat="42.23355" lon="0.03361">
        <ele>791</ele>
        <time>2015-09-24T10:04:15Z</time>
      </trkpt>
      <trkpt lat="42.23358" lon="0.0336">
        <ele>791.1</ele>
        <time>2015-09-24T10:04:16Z</time>
      </trkpt>
      <trkpt lat="42.23361" lon="0.03359">
        <ele>791.2</ele>
        <time>2015-09-24T10:04:17Z</time>
      </trkpt>
      <trkpt lat="42.23365" lon="0.03357">
        <ele>791.3</ele>
        <time>2015-09-24T10:04:19Z</time>
      </trkpt>
      <trkpt lat="42.23368" lon="0.03355">
        <ele>791.5</ele>
        <time>2015-09-24T10:04:21Z</time>
      </trkpt>
      <trkpt lat="42.23371" lon="0.03351">
        <ele>791.7</ele>
        <time>2015-09-24T10:04:23Z</time>
      </trkpt>
      <trkpt lat="42.23373" lon="0.03345">
        <ele>792.2</ele>
        <time>2015-09-24T10:04:25Z</time>
      </trkpt>
      <trkpt lat="42.23376" lon="0.03339">
        <ele>792.6</ele>
        <time>2015-09-24T10:04:27Z</time>
      </trkpt>
      <trkpt lat="42.23378" lon="0.03336">
        <ele>792.9</ele>
        <time>2015-09-24T10:04:28Z</time>
      </trkpt>
      <trkpt lat="42.23379" lon="0.03332">
        <ele>793.1</ele>
        <time>2015-09-24T10:04:29Z</time>
      </trkpt>
      <trkpt lat="42.23381" lon="0.03326">
        <ele>793.6</ele>
        <time>2015-09-24T10:04:31Z</time>
      </trkpt>
      <trkpt lat="42.23383" lon="0.03323">
        <ele>793.9</ele>
        <time>2015-09-24T10:04:32Z</time>
      </trkpt>
      <trkpt lat="42.23384" lon="0.0332">
        <ele>794.1</ele>
        <time>2015-09-24T10:04:33Z</time>
      </trkpt>
      <trkpt lat="42.23388" lon="0.03314">
        <ele>794.5</ele>
        <time>2015-09-24T10:04:35Z</time>
      </trkpt>
      <trkpt lat="42.23392" lon="0.0331">
        <ele>794.9</ele>
        <time>2015-09-24T10:04:37Z</time>
      </trkpt>
      <trkpt lat="42.23396" lon="0.03306">
        <ele>795.2</ele>
        <time>2015-09-24T10:04:39Z</time>
      </trkpt>
      <trkpt lat="42.23401" lon="0.03302">
        <ele>795.5</ele>
        <time>2015-09-24T10:04:41Z</time>
      </trkpt>
      <trkpt lat="42.23405" lon="0.03298">
        <ele>795.9</ele>
        <time>2015-09-24T10:04:43Z</time>
      </trkpt>
      <trkpt lat="42.23409" lon="0.03294">
        <ele>796.2</ele>
        <time>2015-09-24T10:04:45Z</time>
      </trkpt>
      <trkpt lat="42.23413" lon="0.0329">
        <ele>796.6</ele>
        <time>2015-09-24T10:04:47Z</time>
      </trkpt>
      <trkpt lat="42.23418" lon="0.03286">
        <ele>797.1</ele>
        <time>2015-09-24T10:04:49Z</time>
      </trkpt>
      <trkpt lat="42.23422" lon="0.03283">
        <ele>797.5</ele>
        <time>2015-09-24T10:04:51Z</time>
      </trkpt>
      <trkpt lat="42.23427" lon="0.0328">
        <ele>797.9</ele>
        <time>2015-09-24T10:04:53Z</time>
      </trkpt>
      <trkpt lat="42.23431" lon="0.03277">
        <ele>798.2</ele>
        <time>2015-09-24T10:04:55Z</time>
      </trkpt>
      <trkpt lat="42.23436" lon="0.03275">
        <ele>798.5</ele>
        <time>2015-09-24T10:04:57Z</time>
      </trkpt>
      <trkpt lat="42.2344" lon="0.03273">
        <ele>798.8</ele>
        <time>2015-09-24T10:04:59Z</time>
      </trkpt>
      <trkpt lat="42.23444" lon="0.03271">
        <ele>799.1</ele>
        <time>2015-09-24T10:05:01Z</time>
      </trkpt>
      <trkpt lat="42.23448" lon="0.03269">
        <ele>799.3</ele>
        <time>2015-09-24T10:05:03Z</time>
      </trkpt>
      <trkpt lat="42.23452" lon="0.03267">
        <ele>799.6</ele>
        <time>2015-09-24T10:05:05Z</time>
      </trkpt>
      <trkpt lat="42.23456" lon="0.03264">
        <ele>800</ele>
        <time>2015-09-24T10:05:07Z</time>
      </trkpt>
      <trkpt lat="42.2346" lon="0.03261">
        <ele>800.4</ele>
        <time>2015-09-24T10:05:09Z</time>
      </trkpt>
      <trkpt lat="42.23464" lon="0.03258">
        <ele>800.9</ele>
        <time>2015-09-24T10:05:11Z</time>
      </trkpt>
      <trkpt lat="42.23468" lon="0.03254">
        <ele>801.4</ele>
        <time>2015-09-24T10:05:13Z</time>
      </trkpt>
      <trkpt lat="42.23472" lon="0.03252">
        <ele>801.9</ele>
        <time>2015-09-24T10:05:15Z</time>
      </trkpt>
      <trkpt lat="42.23475" lon="0.03249">
        <ele>802.3</ele>
        <time>2015-09-24T10:05:17Z</time>
      </trkpt>
      <trkpt lat="42.23478" lon="0.03246">
        <ele>802.8</ele>
        <time>2015-09-24T10:05:19Z</time>
      </trkpt>
      <trkpt lat="42.2348" lon="0.03243">
        <ele>803.1</ele>
        <time>2015-09-24T10:05:21Z</time>
      </trkpt>
      <trkpt lat="42.23483" lon="0.03241">
        <ele>803.5</ele>
        <time>2015-09-24T10:05:23Z</time>
      </trkpt>
      <trkpt lat="42.23486" lon="0.03239">
        <ele>803.8</ele>
        <time>2015-09-24T10:05:25Z</time>
      </trkpt>
      <trkpt lat="42.23488" lon="0.03237">
        <ele>804.1</ele>
        <time>2015-09-24T10:05:27Z</time>
      </trkpt>
      <trkpt lat="42.23491" lon="0.03235">
        <ele>804.4</ele>
        <time>2015-09-24T10:05:29Z</time>
      </trkpt>
      <trkpt lat="42.23493" lon="0.03232">
        <ele>804.8</ele>
        <time>2015-09-24T10:05:31Z</time>
      </trkpt>
      <trkpt lat="42.23495" lon="0.0323">
        <ele>805.1</ele>
        <time>2015-09-24T10:05:33Z</time>
      </trkpt>
      <trkpt lat="42.23498" lon="0.03228">
        <ele>805.4</ele>
        <time>2015-09-24T10:05:35Z</time>
      </trkpt>
      <trkpt lat="42.235" lon="0.03226">
        <ele>805.7</ele>
        <time>2015-09-24T10:05:37Z</time>
      </trkpt>
      <trkpt lat="42.23502" lon="0.03223">
        <ele>806.1</ele>
        <time>2015-09-24T10:05:39Z</time>
      </trkpt>
      <trkpt lat="42.23504" lon="0.03219">
        <ele>806.6</ele>
        <time>2015-09-24T10:05:42Z</time>
      </trkpt>
      <trkpt lat="42.23506" lon="0.03216">
        <ele>806.9</ele>
        <time>2015-09-24T10:05:44Z</time>
      </trkpt>
      <trkpt lat="42.23508" lon="0.03213">
        <ele>807.4</ele>
        <time>2015-09-24T10:05:49Z</time>
      </trkpt>
      <trkpt lat="42.2351" lon="0.0321">
        <ele>807.7</ele>
        <time>2015-09-24T10:05:51Z</time>
      </trkpt>
      <trkpt lat="42.23512" lon="0.03207">
        <ele>808.1</ele>
        <time>2015-09-24T10:05:54Z</time>
      </trkpt>
      <trkpt lat="42.23514" lon="0.03204">
        <ele>808.5</ele>
        <time>2015-09-24T10:05:57Z</time>
      </trkpt>
      <trkpt lat="42.23517" lon="0.032">
        <ele>808.9</ele>
        <time>2015-09-24T10:06:00Z</time>
      </trkpt>
      <trkpt lat="42.23518" lon="0.03197">
        <ele>809.3</ele>
        <time>2015-09-24T10:06:02Z</time>
      </trkpt>
      <trkpt lat="42.2352" lon="0.03193">
        <ele>809.7</ele>
        <time>2015-09-24T10:06:05Z</time>
      </trkpt>
      <trkpt lat="42.23523" lon="0.0319">
        <ele>810.1</ele>
        <time>2015-09-24T10:06:08Z</time>
      </trkpt>
      <trkpt lat="42.23526" lon="0.03187">
        <ele>810.5</ele>
        <time>2015-09-24T10:06:11Z</time>
      </trkpt>
      <trkpt lat="42.23528" lon="0.03184">
        <ele>810.9</ele>
        <time>2015-09-24T10:06:13Z</time>
      </trkpt>
      <trkpt lat="42.23529" lon="0.03181">
        <ele>811.3</ele>
        <time>2015-09-24T10:06:15Z</time>
      </trkpt>
      <trkpt lat="42.2353" lon="0.03177">
        <ele>811.7</ele>
        <time>2015-09-24T10:06:17Z</time>
      </trkpt>
      <trkpt lat="42.23531" lon="0.03173">
        <ele>812.1</ele>
        <time>2015-09-24T10:06:19Z</time>
      </trkpt>
      <trkpt lat="42.23533" lon="0.03169">
        <ele>812.5</ele>
        <time>2015-09-24T10:06:21Z</time>
      </trkpt>
      <trkpt lat="42.23535" lon="0.03165">
        <ele>813</ele>
        <time>2015-09-24T10:06:23Z</time>
      </trkpt>
      <trkpt lat="42.23536" lon="0.0316">
        <ele>813.4</ele>
        <time>2015-09-24T10:06:25Z</time>
      </trkpt>
      <trkpt lat="42.23538" lon="0.03156">
        <ele>813.9</ele>
        <time>2015-09-24T10:06:27Z</time>
      </trkpt>
      <trkpt lat="42.23539" lon="0.03152">
        <ele>814.3</ele>
        <time>2015-09-24T10:06:29Z</time>
      </trkpt>
      <trkpt lat="42.23542" lon="0.03149">
        <ele>814.7</ele>
        <time>2015-09-24T10:06:31Z</time>
      </trkpt>
      <trkpt lat="42.23545" lon="0.03147">
        <ele>814.9</ele>
        <time>2015-09-24T10:06:33Z</time>
      </trkpt>
      <trkpt lat="42.23549" lon="0.03146">
        <ele>814.9</ele>
        <time>2015-09-24T10:06:35Z</time>
      </trkpt>
      <trkpt lat="42.23552" lon="0.03145">
        <ele>815</ele>
        <time>2015-09-24T10:06:36Z</time>
      </trkpt>
      <trkpt lat="42.23555" lon="0.03144">
        <ele>815.1</ele>
        <time>2015-09-24T10:06:37Z</time>
      </trkpt>
      <trkpt lat="42.23558" lon="0.03143">
        <ele>815.1</ele>
        <time>2015-09-24T10:06:38Z</time>
      </trkpt>
      <trkpt lat="42.23561" lon="0.03141">
        <ele>815.2</ele>
        <time>2015-09-24T10:06:39Z</time>
      </trkpt>
      <trkpt lat="42.23564" lon="0.0314">
        <ele>815.3</ele>
        <time>2015-09-24T10:06:40Z</time>
      </trkpt>
      <trkpt lat="42.23567" lon="0.03138">
        <ele>815.5</ele>
        <time>2015-09-24T10:06:41Z</time>
      </trkpt>
      <trkpt lat="42.2357" lon="0.03136">
        <ele>815.6</ele>
        <time>2015-09-24T10:06:42Z</time>
      </trkpt>
      <trkpt lat="42.23573" lon="0.03134">
        <ele>815.8</ele>
        <time>2015-09-24T10:06:43Z</time>
      </trkpt>
      <trkpt lat="42.23576" lon="0.03133">
        <ele>815.8</ele>
        <time>2015-09-24T10:06:44Z</time>
      </trkpt>
      <trkpt lat="42.23579" lon="0.03133">
        <ele>815.8</ele>
        <time>2015-09-24T10:06:45Z</time>
      </trkpt>
      <trkpt lat="42.23582" lon="0.03134">
        <ele>815.7</ele>
        <time>2015-09-24T10:06:46Z</time>
      </trkpt>
      <trkpt lat="42.23586" lon="0.03134">
        <ele>815.7</ele>
        <time>2015-09-24T10:06:47Z</time>
      </trkpt>
      <trkpt lat="42.23589" lon="0.03134">
        <ele>815.6</ele>
        <time>2015-09-24T10:06:48Z</time>
      </trkpt>
      <trkpt lat="42.23592" lon="0.03134">
        <ele>815.6</ele>
        <time>2015-09-24T10:06:49Z</time>
      </trkpt>
      <trkpt lat="42.23596" lon="0.03135">
        <ele>815.4</ele>
        <time>2015-09-24T10:06:50Z</time>
      </trkpt>
      <trkpt lat="42.236" lon="0.03138">
        <ele>815.2</ele>
        <time>2015-09-24T10:06:51Z</time>
      </trkpt>
      <trkpt lat="42.23603" lon="0.03141">
        <ele>814.9</ele>
        <time>2015-09-24T10:06:52Z</time>
      </trkpt>
      <trkpt lat="42.23606" lon="0.03144">
        <ele>814.6</ele>
        <time>2015-09-24T10:06:53Z</time>
      </trkpt>
      <trkpt lat="42.23609" lon="0.03147">
        <ele>814.3</ele>
        <time>2015-09-24T10:06:54Z</time>
      </trkpt>
      <trkpt lat="42.23612" lon="0.03149">
        <ele>814.1</ele>
        <time>2015-09-24T10:06:55Z</time>
      </trkpt>
      <trkpt lat="42.23616" lon="0.03149">
        <ele>814.1</ele>
        <time>2015-09-24T10:06:56Z</time>
      </trkpt>
      <trkpt lat="42.23618" lon="0.03147">
        <ele>814.2</ele>
        <time>2015-09-24T10:06:57Z</time>
      </trkpt>
      <trkpt lat="42.23621" lon="0.03145">
        <ele>814.3</ele>
        <time>2015-09-24T10:06:58Z</time>
      </trkpt>
      <trkpt lat="42.23624" lon="0.03143">
        <ele>814.5</ele>
        <time>2015-09-24T10:06:59Z</time>
      </trkpt>
      <trkpt lat="42.23627" lon="0.03141">
        <ele>814.6</ele>
        <time>2015-09-24T10:07:00Z</time>
      </trkpt>
      <trkpt lat="42.2363" lon="0.0314">
        <ele>814.6</ele>
        <time>2015-09-24T10:07:01Z</time>
      </trkpt>
      <trkpt lat="42.23634" lon="0.03139">
        <ele>814.5</ele>
        <time>2015-09-24T10:07:02Z</time>
      </trkpt>
      <trkpt lat="42.23637" lon="0.03138">
        <ele>814.6</ele>
        <time>2015-09-24T10:07:03Z</time>
      </trkpt>
      <trkpt lat="42.23639" lon="0.03136">
        <ele>814.7</ele>
        <time>2015-09-24T10:07:04Z</time>
      </trkpt>
      <trkpt lat="42.23642" lon="0.03134">
        <ele>814.7</ele>
        <time>2015-09-24T10:07:05Z</time>
      </trkpt>
      <trkpt lat="42.23644" lon="0.03132">
        <ele>814.8</ele>
        <time>2015-09-24T10:07:06Z</time>
      </trkpt>
      <trkpt lat="42.23647" lon="0.03129">
        <ele>814.9</ele>
        <time>2015-09-24T10:07:07Z</time>
      </trkpt>
      <trkpt lat="42.23649" lon="0.03127">
        <ele>815</ele>
        <time>2015-09-24T10:07:08Z</time>
      </trkpt>
      <trkpt lat="42.23652" lon="0.03125">
        <ele>815.1</ele>
        <time>2015-09-24T10:07:09Z</time>
      </trkpt>
      <trkpt lat="42.23654" lon="0.03122">
        <ele>815.1</ele>
        <time>2015-09-24T10:07:10Z</time>
      </trkpt>
      <trkpt lat="42.23657" lon="0.0312">
        <ele>815.2</ele>
        <time>2015-09-24T10:07:11Z</time>
      </trkpt>
      <trkpt lat="42.23659" lon="0.03117">
        <ele>815.2</ele>
        <time>2015-09-24T10:07:12Z</time>
      </trkpt>
      <trkpt lat="42.23662" lon="0.03114">
        <ele>815.3</ele>
        <time>2015-09-24T10:07:13Z</time>
      </trkpt>
      <trkpt lat="42.23664" lon="0.03111">
        <ele>815.4</ele>
        <time>2015-09-24T10:07:14Z</time>
      </trkpt>
      <trkpt lat="42.23666" lon="0.03108">
        <ele>815.4</ele>
        <time>2015-09-24T10:07:15Z</time>
      </trkpt>
      <trkpt lat="42.23669" lon="0.03106">
        <ele>815.4</ele>
        <time>2015-09-24T10:07:16Z</time>
      </trkpt>
      <trkpt lat="42.23673" lon="0.03102">
        <ele>815.5</ele>
        <time>2015-09-24T10:07:18Z</time>
      </trkpt>
      <trkpt lat="42.23677" lon="0.03099">
        <ele>815.4</ele>
        <time>2015-09-24T10:07:20Z</time>
      </trkpt>
      <trkpt lat="42.23682" lon="0.03096">
        <ele>815.3</ele>
        <time>2015-09-24T10:07:22Z</time>
      </trkpt>
      <trkpt lat="42.23685" lon="0.03095">
        <ele>815.3</ele>
        <time>2015-09-24T10:07:23Z</time>
      </trkpt>
      <trkpt lat="42.23688" lon="0.03094">
        <ele>815.1</ele>
        <time>2015-09-24T10:07:24Z</time>
      </trkpt>
      <trkpt lat="42.23691" lon="0.03094">
        <ele>815</ele>
        <time>2015-09-24T10:07:25Z</time>
      </trkpt>
      <trkpt lat="42.23693" lon="0.03096">
        <ele>814.8</ele>
        <time>2015-09-24T10:07:26Z</time>
      </trkpt>
      <trkpt lat="42.23696" lon="0.03097">
        <ele>814.6</ele>
        <time>2015-09-24T10:07:27Z</time>
      </trkpt>
      <trkpt lat="42.237" lon="0.031">
        <ele>814.3</ele>
        <time>2015-09-24T10:07:29Z</time>
      </trkpt>
      <trkpt lat="42.23703" lon="0.03099">
        <ele>814.2</ele>
        <time>2015-09-24T10:07:31Z</time>
      </trkpt>
      <trkpt lat="42.23707" lon="0.03098">
        <ele>814</ele>
        <time>2015-09-24T10:07:33Z</time>
      </trkpt>
      <trkpt lat="42.2371" lon="0.03098">
        <ele>814</ele>
        <time>2015-09-24T10:07:35Z</time>
      </trkpt>
      <trkpt lat="42.23713" lon="0.03098">
        <ele>814.2</ele>
        <time>2015-09-24T10:07:38Z</time>
      </trkpt>
      <trkpt lat="42.23717" lon="0.03096">
        <ele>814.4</ele>
        <time>2015-09-24T10:07:41Z</time>
      </trkpt>
      <trkpt lat="42.2372" lon="0.03095">
        <ele>814.6</ele>
        <time>2015-09-24T10:07:43Z</time>
      </trkpt>
      <trkpt lat="42.23723" lon="0.03093">
        <ele>814.9</ele>
        <time>2015-09-24T10:07:45Z</time>
      </trkpt>
      <trkpt lat="42.23727" lon="0.03092">
        <ele>815.1</ele>
        <time>2015-09-24T10:07:47Z</time>
      </trkpt>
      <trkpt lat="42.2373" lon="0.0309">
        <ele>815.3</ele>
        <time>2015-09-24T10:07:49Z</time>
      </trkpt>
      <trkpt lat="42.23733" lon="0.03087">
        <ele>815.5</ele>
        <time>2015-09-24T10:07:51Z</time>
      </trkpt>
      <trkpt lat="42.23735" lon="0.03084">
        <ele>815.8</ele>
        <time>2015-09-24T10:07:53Z</time>
      </trkpt>
      <trkpt lat="42.23738" lon="0.03082">
        <ele>816</ele>
        <time>2015-09-24T10:07:55Z</time>
      </trkpt>
      <trkpt lat="42.23741" lon="0.0308">
        <ele>816.2</ele>
        <time>2015-09-24T10:07:57Z</time>
      </trkpt>
      <trkpt lat="42.23744" lon="0.03077">
        <ele>816.4</ele>
        <time>2015-09-24T10:07:59Z</time>
      </trkpt>
      <trkpt lat="42.23745" lon="0.03074">
        <ele>816.6</ele>
        <time>2015-09-24T10:08:01Z</time>
      </trkpt>
      <trkpt lat="42.23747" lon="0.0307">
        <ele>816.8</ele>
        <time>2015-09-24T10:08:03Z</time>
      </trkpt>
      <trkpt lat="42.23749" lon="0.03067">
        <ele>817.1</ele>
        <time>2015-09-24T10:08:05Z</time>
      </trkpt>
      <trkpt lat="42.23752" lon="0.03065">
        <ele>817.3</ele>
        <time>2015-09-24T10:08:07Z</time>
      </trkpt>
      <trkpt lat="42.23755" lon="0.03063">
        <ele>817.5</ele>
        <time>2015-09-24T10:08:09Z</time>
      </trkpt>
      <trkpt lat="42.23758" lon="0.03061">
        <ele>817.7</ele>
        <time>2015-09-24T10:08:11Z</time>
      </trkpt>
      <trkpt lat="42.23761" lon="0.0306">
        <ele>817.9</ele>
        <time>2015-09-24T10:08:13Z</time>
      </trkpt>
      <trkpt lat="42.23764" lon="0.03059">
        <ele>818.1</ele>
        <time>2015-09-24T10:08:15Z</time>
      </trkpt>
      <trkpt lat="42.23767" lon="0.03057">
        <ele>818.3</ele>
        <time>2015-09-24T10:08:17Z</time>
      </trkpt>
      <trkpt lat="42.2377" lon="0.03056">
        <ele>818.4</ele>
        <time>2015-09-24T10:08:19Z</time>
      </trkpt>
      <trkpt lat="42.23772" lon="0.03054">
        <ele>818.6</ele>
        <time>2015-09-24T10:08:21Z</time>
      </trkpt>
      <trkpt lat="42.23775" lon="0.03052">
        <ele>818.8</ele>
        <time>2015-09-24T10:08:23Z</time>
      </trkpt>
      <trkpt lat="42.23778" lon="0.03051">
        <ele>819</ele>
        <time>2015-09-24T10:08:25Z</time>
      </trkpt>
      <trkpt lat="42.2378" lon="0.03049">
        <ele>819.2</ele>
        <time>2015-09-24T10:08:27Z</time>
      </trkpt>
      <trkpt lat="42.23783" lon="0.03048">
        <ele>819.4</ele>
        <time>2015-09-24T10:08:29Z</time>
      </trkpt>
      <trkpt lat="42.23786" lon="0.03046">
        <ele>819.5</ele>
        <time>2015-09-24T10:08:31Z</time>
      </trkpt>
      <trkpt lat="42.23788" lon="0.03044">
        <ele>819.7</ele>
        <time>2015-09-24T10:08:33Z</time>
      </trkpt>
      <trkpt lat="42.23791" lon="0.03043">
        <ele>819.9</ele>
        <time>2015-09-24T10:08:35Z</time>
      </trkpt>
      <trkpt lat="42.23794" lon="0.03041">
        <ele>820.1</ele>
        <time>2015-09-24T10:08:37Z</time>
      </trkpt>
      <trkpt lat="42.23797" lon="0.0304">
        <ele>820.2</ele>
        <time>2015-09-24T10:08:39Z</time>
      </trkpt>
      <trkpt lat="42.238" lon="0.03039">
        <ele>820.3</ele>
        <time>2015-09-24T10:08:41Z</time>
      </trkpt>
      <trkpt lat="42.23803" lon="0.03038">
        <ele>820.4</ele>
        <time>2015-09-24T10:08:43Z</time>
      </trkpt>
      <trkpt lat="42.23807" lon="0.03038">
        <ele>820.6</ele>
        <time>2015-09-24T10:08:45Z</time>
      </trkpt>
      <trkpt lat="42.2381" lon="0.03037">
        <ele>820.7</ele>
        <time>2015-09-24T10:08:47Z</time>
      </trkpt>
      <trkpt lat="42.23813" lon="0.03036">
        <ele>820.8</ele>
        <time>2015-09-24T10:08:49Z</time>
      </trkpt>
      <trkpt lat="42.23816" lon="0.03035">
        <ele>820.9</ele>
        <time>2015-09-24T10:08:51Z</time>
      </trkpt>
      <trkpt lat="42.23819" lon="0.03034">
        <ele>821.1</ele>
        <time>2015-09-24T10:08:53Z</time>
      </trkpt>
      <trkpt lat="42.23823" lon="0.03034">
        <ele>821.2</ele>
        <time>2015-09-24T10:08:55Z</time>
      </trkpt>
      <trkpt lat="42.23826" lon="0.03035">
        <ele>821.4</ele>
        <time>2015-09-24T10:08:57Z</time>
      </trkpt>
      <trkpt lat="42.2383" lon="0.03035">
        <ele>821.6</ele>
        <time>2015-09-24T10:08:59Z</time>
      </trkpt>
      <trkpt lat="42.23833" lon="0.03035">
        <ele>821.8</ele>
        <time>2015-09-24T10:09:01Z</time>
      </trkpt>
      <trkpt lat="42.23837" lon="0.03035">
        <ele>821.9</ele>
        <time>2015-09-24T10:09:03Z</time>
      </trkpt>
      <trkpt lat="42.2384" lon="0.03032">
        <ele>822</ele>
        <time>2015-09-24T10:09:05Z</time>
      </trkpt>
      <trkpt lat="42.23843" lon="0.03029">
        <ele>822</ele>
        <time>2015-09-24T10:09:07Z</time>
      </trkpt>
      <trkpt lat="42.23846" lon="0.03026">
        <ele>822</ele>
        <time>2015-09-24T10:09:09Z</time>
      </trkpt>
      <trkpt lat="42.23849" lon="0.03023">
        <ele>822.1</ele>
        <time>2015-09-24T10:09:11Z</time>
      </trkpt>
      <trkpt lat="42.23852" lon="0.0302">
        <ele>822.1</ele>
        <time>2015-09-24T10:09:13Z</time>
      </trkpt>
      <trkpt lat="42.23856" lon="0.03017">
        <ele>822.2</ele>
        <time>2015-09-24T10:09:15Z</time>
      </trkpt>
      <trkpt lat="42.23859" lon="0.03014">
        <ele>822.2</ele>
        <time>2015-09-24T10:09:17Z</time>
      </trkpt>
      <trkpt lat="42.23862" lon="0.03011">
        <ele>822.3</ele>
        <time>2015-09-24T10:09:19Z</time>
      </trkpt>
      <trkpt lat="42.23865" lon="0.03007">
        <ele>822.3</ele>
        <time>2015-09-24T10:09:21Z</time>
      </trkpt>
      <trkpt lat="42.23867" lon="0.03002">
        <ele>822.2</ele>
        <time>2015-09-24T10:09:23Z</time>
      </trkpt>
      <trkpt lat="42.23868" lon="0.02995">
        <ele>822</ele>
        <time>2015-09-24T10:09:25Z</time>
      </trkpt>
      <trkpt lat="42.23869" lon="0.02989">
        <ele>821.8</ele>
        <time>2015-09-24T10:09:27Z</time>
      </trkpt>
      <trkpt lat="42.2387" lon="0.02983">
        <ele>821.7</ele>
        <time>2015-09-24T10:09:29Z</time>
      </trkpt>
      <trkpt lat="42.23873" lon="0.02979">
        <ele>821.6</ele>
        <time>2015-09-24T10:09:31Z</time>
      </trkpt>
      <trkpt lat="42.23875" lon="0.02976">
        <ele>821.6</ele>
        <time>2015-09-24T10:09:33Z</time>
      </trkpt>
      <trkpt lat="42.23878" lon="0.02974">
        <ele>821.7</ele>
        <time>2015-09-24T10:09:35Z</time>
      </trkpt>
      <trkpt lat="42.23881" lon="0.02972">
        <ele>821.8</ele>
        <time>2015-09-24T10:09:37Z</time>
      </trkpt>
      <trkpt lat="42.23884" lon="0.0297">
        <ele>821.9</ele>
        <time>2015-09-24T10:09:39Z</time>
      </trkpt>
      <trkpt lat="42.23886" lon="0.02967">
        <ele>822</ele>
        <time>2015-09-24T10:09:45Z</time>
      </trkpt>
      <trkpt lat="42.2389" lon="0.02967">
        <ele>822.2</ele>
        <time>2015-09-24T10:09:47Z</time>
      </trkpt>
      <trkpt lat="42.23894" lon="0.02967">
        <ele>822.4</ele>
        <time>2015-09-24T10:09:49Z</time>
      </trkpt>
      <trkpt lat="42.23898" lon="0.02965">
        <ele>822.5</ele>
        <time>2015-09-24T10:09:55Z</time>
      </trkpt>
      <trkpt lat="42.23902" lon="0.02961">
        <ele>822.7</ele>
        <time>2015-09-24T10:09:57Z</time>
      </trkpt>
      <trkpt lat="42.23906" lon="0.02958">
        <ele>822.8</ele>
        <time>2015-09-24T10:09:59Z</time>
      </trkpt>
      <trkpt lat="42.23908" lon="0.02953">
        <ele>823.1</ele>
        <time>2015-09-24T10:10:01Z</time>
      </trkpt>
      <trkpt lat="42.2391" lon="0.02945">
        <ele>823.4</ele>
        <time>2015-09-24T10:10:03Z</time>
      </trkpt>
      <trkpt lat="42.23912" lon="0.02941">
        <ele>823.6</ele>
        <time>2015-09-24T10:10:05Z</time>
      </trkpt>
      <trkpt lat="42.23913" lon="0.02937">
        <ele>823.8</ele>
        <time>2015-09-24T10:10:07Z</time>
      </trkpt>
      <trkpt lat="42.23915" lon="0.02933">
        <ele>824</ele>
        <time>2015-09-24T10:10:09Z</time>
      </trkpt>
      <trkpt lat="42.23917" lon="0.02928">
        <ele>824.2</ele>
        <time>2015-09-24T10:10:11Z</time>
      </trkpt>
      <trkpt lat="42.2392" lon="0.02925">
        <ele>824.6</ele>
        <time>2015-09-24T10:10:13Z</time>
      </trkpt>
      <trkpt lat="42.23925" lon="0.02921">
        <ele>825</ele>
        <time>2015-09-24T10:10:15Z</time>
      </trkpt>
      <trkpt lat="42.23927" lon="0.02919">
        <ele>825.2</ele>
        <time>2015-09-24T10:10:16Z</time>
      </trkpt>
      <trkpt lat="42.23929" lon="0.02917">
        <ele>825.4</ele>
        <time>2015-09-24T10:10:17Z</time>
      </trkpt>
      <trkpt lat="42.23932" lon="0.02915">
        <ele>825.6</ele>
        <time>2015-09-24T10:10:18Z</time>
      </trkpt>
      <trkpt lat="42.23934" lon="0.02911">
        <ele>825.9</ele>
        <time>2015-09-24T10:10:20Z</time>
      </trkpt>
      <trkpt lat="42.23937" lon="0.02907">
        <ele>826.2</ele>
        <time>2015-09-24T10:10:50Z</time>
      </trkpt>
      <trkpt lat="42.23941" lon="0.02903">
        <ele>826.7</ele>
        <time>2015-09-24T10:10:52Z</time>
      </trkpt>
      <trkpt lat="42.23944" lon="0.02901">
        <ele>826.9</ele>
        <time>2015-09-24T10:10:53Z</time>
      </trkpt>
      <trkpt lat="42.23946" lon="0.02898">
        <ele>827.2</ele>
        <time>2015-09-24T10:10:54Z</time>
      </trkpt>
      <trkpt lat="42.23948" lon="0.02896">
        <ele>827.5</ele>
        <time>2015-09-24T10:10:55Z</time>
      </trkpt>
      <trkpt lat="42.2395" lon="0.02893">
        <ele>827.7</ele>
        <time>2015-09-24T10:10:56Z</time>
      </trkpt>
      <trkpt lat="42.23952" lon="0.0289">
        <ele>828</ele>
        <time>2015-09-24T10:10:57Z</time>
      </trkpt>
      <trkpt lat="42.23954" lon="0.02887">
        <ele>828.3</ele>
        <time>2015-09-24T10:10:58Z</time>
      </trkpt>
      <trkpt lat="42.23957" lon="0.02884">
        <ele>828.6</ele>
        <time>2015-09-24T10:10:59Z</time>
      </trkpt>
      <trkpt lat="42.2396" lon="0.02881">
        <ele>828.7</ele>
        <time>2015-09-24T10:11:00Z</time>
      </trkpt>
      <trkpt lat="42.23963" lon="0.02879">
        <ele>828.6</ele>
        <time>2015-09-24T10:11:01Z</time>
      </trkpt>
      <trkpt lat="42.23965" lon="0.02877">
        <ele>828.4</ele>
        <time>2015-09-24T10:11:02Z</time>
      </trkpt>
      <trkpt lat="42.23968" lon="0.02875">
        <ele>828.3</ele>
        <time>2015-09-24T10:11:03Z</time>
      </trkpt>
      <trkpt lat="42.23971" lon="0.02872">
        <ele>828.2</ele>
        <time>2015-09-24T10:11:04Z</time>
      </trkpt>
      <trkpt lat="42.23974" lon="0.0287">
        <ele>828.2</ele>
        <time>2015-09-24T10:11:05Z</time>
      </trkpt>
      <trkpt lat="42.23977" lon="0.02868">
        <ele>828</ele>
        <time>2015-09-24T10:11:06Z</time>
      </trkpt>
      <trkpt lat="42.23981" lon="0.02867">
        <ele>827.8</ele>
        <time>2015-09-24T10:11:07Z</time>
      </trkpt>
      <trkpt lat="42.23984" lon="0.02867">
        <ele>827.6</ele>
        <time>2015-09-24T10:11:08Z</time>
      </trkpt>
      <trkpt lat="42.23988" lon="0.02868">
        <ele>827.3</ele>
        <time>2015-09-24T10:11:09Z</time>
      </trkpt>
      <trkpt lat="42.23991" lon="0.0287">
        <ele>827</ele>
        <time>2015-09-24T10:11:10Z</time>
      </trkpt>
      <trkpt lat="42.23994" lon="0.02871">
        <ele>826.6</ele>
        <time>2015-09-24T10:11:11Z</time>
      </trkpt>
      <trkpt lat="42.23997" lon="0.02872">
        <ele>826.4</ele>
        <time>2015-09-24T10:11:12Z</time>
      </trkpt>
      <trkpt lat="42.24001" lon="0.02871">
        <ele>826.1</ele>
        <time>2015-09-24T10:11:14Z</time>
      </trkpt>
      <trkpt lat="42.24005" lon="0.02868">
        <ele>826.1</ele>
        <time>2015-09-24T10:11:16Z</time>
      </trkpt>
      <trkpt lat="42.24008" lon="0.02863">
        <ele>826.2</ele>
        <time>2015-09-24T10:11:18Z</time>
      </trkpt>
      <trkpt lat="42.24012" lon="0.02858">
        <ele>826.2</ele>
        <time>2015-09-24T10:11:20Z</time>
      </trkpt>
      <trkpt lat="42.24014" lon="0.02855">
        <ele>826.3</ele>
        <time>2015-09-24T10:11:24Z</time>
      </trkpt>
      <trkpt lat="42.24016" lon="0.02852">
        <ele>826.4</ele>
        <time>2015-09-24T10:11:32Z</time>
      </trkpt>
      <trkpt lat="42.24019" lon="0.02848">
        <ele>826.4</ele>
        <time>2015-09-24T10:11:36Z</time>
      </trkpt>
      <trkpt lat="42.24021" lon="0.02845">
        <ele>826.5</ele>
        <time>2015-09-24T10:11:37Z</time>
      </trkpt>
      <trkpt lat="42.24022" lon="0.02842">
        <ele>826.6</ele>
        <time>2015-09-24T10:11:38Z</time>
      </trkpt>
      <trkpt lat="42.24022" lon="0.02838">
        <ele>826.9</ele>
        <time>2015-09-24T10:11:39Z</time>
      </trkpt>
      <trkpt lat="42.24022" lon="0.02833">
        <ele>827.2</ele>
        <time>2015-09-24T10:11:40Z</time>
      </trkpt>
      <trkpt lat="42.24022" lon="0.02829">
        <ele>827.5</ele>
        <time>2015-09-24T10:11:41Z</time>
      </trkpt>
      <trkpt lat="42.24023" lon="0.02826">
        <ele>827.6</ele>
        <time>2015-09-24T10:11:42Z</time>
      </trkpt>
      <trkpt lat="42.24025" lon="0.02823">
        <ele>827.7</ele>
        <time>2015-09-24T10:11:43Z</time>
      </trkpt>
      <trkpt lat="42.24028" lon="0.02824">
        <ele>827.5</ele>
        <time>2015-09-24T10:11:44Z</time>
      </trkpt>
      <trkpt lat="42.2403" lon="0.02826">
        <ele>827.2</ele>
        <time>2015-09-24T10:11:45Z</time>
      </trkpt>
      <trkpt lat="42.24034" lon="0.02832">
        <ele>826.6</ele>
        <time>2015-09-24T10:11:47Z</time>
      </trkpt>
      <trkpt lat="42.24036" lon="0.02834">
        <ele>826.3</ele>
        <time>2015-09-24T10:11:48Z</time>
      </trkpt>
      <trkpt lat="42.24038" lon="0.02837">
        <ele>826</ele>
        <time>2015-09-24T10:11:49Z</time>
      </trkpt>
      <trkpt lat="42.24042" lon="0.0284">
        <ele>825.5</ele>
        <time>2015-09-24T10:11:51Z</time>
      </trkpt>
      <trkpt lat="42.24046" lon="0.02841">
        <ele>825.3</ele>
        <time>2015-09-24T10:12:03Z</time>
      </trkpt>
      <trkpt lat="42.24049" lon="0.02843">
        <ele>825.1</ele>
        <time>2015-09-24T10:12:07Z</time>
      </trkpt>
      <trkpt lat="42.24052" lon="0.02845">
        <ele>824.9</ele>
        <time>2015-09-24T10:12:13Z</time>
      </trkpt>
      <trkpt lat="42.24055" lon="0.02846">
        <ele>824.7</ele>
        <time>2015-09-24T10:12:19Z</time>
      </trkpt>
      <trkpt lat="42.24058" lon="0.02846">
        <ele>824.6</ele>
        <time>2015-09-24T10:12:25Z</time>
      </trkpt>
      <trkpt lat="42.2406" lon="0.02848">
        <ele>824.3</ele>
        <time>2015-09-24T10:12:31Z</time>
      </trkpt>
      <trkpt lat="42.24062" lon="0.02851">
        <ele>824</ele>
        <time>2015-09-24T10:12:42Z</time>
      </trkpt>
      <trkpt lat="42.24065" lon="0.02853">
        <ele>823.7</ele>
        <time>2015-09-24T10:12:45Z</time>
      </trkpt>
      <trkpt lat="42.24067" lon="0.02854">
        <ele>823.5</ele>
        <time>2015-09-24T10:12:48Z</time>
      </trkpt>
      <trkpt lat="42.2407" lon="0.02857">
        <ele>823.1</ele>
        <time>2015-09-24T10:12:52Z</time>
      </trkpt>
      <trkpt lat="42.24073" lon="0.0286">
        <ele>822.7</ele>
        <time>2015-09-24T10:12:55Z</time>
      </trkpt>
      <trkpt lat="42.24076" lon="0.02861">
        <ele>822.4</ele>
        <time>2015-09-24T10:12:57Z</time>
      </trkpt>
      <trkpt lat="42.24079" lon="0.02862">
        <ele>822.2</ele>
        <time>2015-09-24T10:12:59Z</time>
      </trkpt>
      <trkpt lat="42.24082" lon="0.02862">
        <ele>822.1</ele>
        <time>2015-09-24T10:13:01Z</time>
      </trkpt>
      <trkpt lat="42.24086" lon="0.0286">
        <ele>822.1</ele>
        <time>2015-09-24T10:13:03Z</time>
      </trkpt>
      <trkpt lat="42.24091" lon="0.02857">
        <ele>822.2</ele>
        <time>2015-09-24T10:13:05Z</time>
      </trkpt>
      <trkpt lat="42.24094" lon="0.02855">
        <ele>822.3</ele>
        <time>2015-09-24T10:13:06Z</time>
      </trkpt>
      <trkpt lat="42.24098" lon="0.02853">
        <ele>822.4</ele>
        <time>2015-09-24T10:13:07Z</time>
      </trkpt>
      <trkpt lat="42.24101" lon="0.02851">
        <ele>822.6</ele>
        <time>2015-09-24T10:13:08Z</time>
      </trkpt>
      <trkpt lat="42.24104" lon="0.02847">
        <ele>823</ele>
        <time>2015-09-24T10:13:09Z</time>
      </trkpt>
      <trkpt lat="42.24106" lon="0.02844">
        <ele>823.4</ele>
        <time>2015-09-24T10:13:10Z</time>
      </trkpt>
      <trkpt lat="42.24108" lon="0.0284">
        <ele>823.9</ele>
        <time>2015-09-24T10:13:11Z</time>
      </trkpt>
      <trkpt lat="42.2411" lon="0.02836">
        <ele>824.4</ele>
        <time>2015-09-24T10:13:12Z</time>
      </trkpt>
      <trkpt lat="42.24112" lon="0.02832">
        <ele>824.9</ele>
        <time>2015-09-24T10:13:13Z</time>
      </trkpt>
      <trkpt lat="42.24114" lon="0.02828">
        <ele>825.5</ele>
        <time>2015-09-24T10:13:14Z</time>
      </trkpt>
      <trkpt lat="42.24116" lon="0.02824">
        <ele>826.1</ele>
        <time>2015-09-24T10:13:15Z</time>
      </trkpt>
      <trkpt lat="42.24118" lon="0.0282">
        <ele>826.7</ele>
        <time>2015-09-24T10:13:16Z</time>
      </trkpt>
      <trkpt lat="42.2412" lon="0.02816">
        <ele>827.3</ele>
        <time>2015-09-24T10:13:17Z</time>
      </trkpt>
      <trkpt lat="42.24123" lon="0.02812">
        <ele>827.8</ele>
        <time>2015-09-24T10:13:18Z</time>
      </trkpt>
      <trkpt lat="42.24127" lon="0.02809">
        <ele>828.1</ele>
        <time>2015-09-24T10:13:19Z</time>
      </trkpt>
      <trkpt lat="42.24132" lon="0.02806">
        <ele>828.1</ele>
        <time>2015-09-24T10:13:20Z</time>
      </trkpt>
      <trkpt lat="42.24136" lon="0.02804">
        <ele>828.2</ele>
        <time>2015-09-24T10:13:21Z</time>
      </trkpt>
      <trkpt lat="42.24141" lon="0.02801">
        <ele>828.2</ele>
        <time>2015-09-24T10:13:22Z</time>
      </trkpt>
      <trkpt lat="42.24145" lon="0.02797">
        <ele>828.4</ele>
        <time>2015-09-24T10:13:23Z</time>
      </trkpt>
      <trkpt lat="42.24148" lon="0.02795">
        <ele>828.5</ele>
        <time>2015-09-24T10:13:24Z</time>
      </trkpt>
      <trkpt lat="42.24152" lon="0.02792">
        <ele>828.6</ele>
        <time>2015-09-24T10:13:25Z</time>
      </trkpt>
      <trkpt lat="42.24155" lon="0.02789">
        <ele>828.8</ele>
        <time>2015-09-24T10:13:26Z</time>
      </trkpt>
      <trkpt lat="42.24159" lon="0.02786">
        <ele>829</ele>
        <time>2015-09-24T10:13:27Z</time>
      </trkpt>
      <trkpt lat="42.24162" lon="0.02783">
        <ele>829</ele>
        <time>2015-09-24T10:13:28Z</time>
      </trkpt>
      <trkpt lat="42.24165" lon="0.02781">
        <ele>829.1</ele>
        <time>2015-09-24T10:13:29Z</time>
      </trkpt>
      <trkpt lat="42.24169" lon="0.02779">
        <ele>829.2</ele>
        <time>2015-09-24T10:13:30Z</time>
      </trkpt>
      <trkpt lat="42.24173" lon="0.02777">
        <ele>829.1</ele>
        <time>2015-09-24T10:13:31Z</time>
      </trkpt>
      <trkpt lat="42.24177" lon="0.02774">
        <ele>829.3</ele>
        <time>2015-09-24T10:13:32Z</time>
      </trkpt>
      <trkpt lat="42.24181" lon="0.02771">
        <ele>829.4</ele>
        <time>2015-09-24T10:13:33Z</time>
      </trkpt>
      <trkpt lat="42.24184" lon="0.02769">
        <ele>829.6</ele>
        <time>2015-09-24T10:13:34Z</time>
      </trkpt>
      <trkpt lat="42.24188" lon="0.02765">
        <ele>829.9</ele>
        <time>2015-09-24T10:13:35Z</time>
      </trkpt>
      <trkpt lat="42.24192" lon="0.02763">
        <ele>830.2</ele>
        <time>2015-09-24T10:13:36Z</time>
      </trkpt>
      <trkpt lat="42.24195" lon="0.0276">
        <ele>830.4</ele>
        <time>2015-09-24T10:13:37Z</time>
      </trkpt>
      <trkpt lat="42.24198" lon="0.02757">
        <ele>830.7</ele>
        <time>2015-09-24T10:13:38Z</time>
      </trkpt>
      <trkpt lat="42.24202" lon="0.02754">
        <ele>831</ele>
        <time>2015-09-24T10:13:39Z</time>
      </trkpt>
      <trkpt lat="42.24206" lon="0.02752">
        <ele>831.3</ele>
        <time>2015-09-24T10:13:40Z</time>
      </trkpt>
      <trkpt lat="42.2421" lon="0.0275">
        <ele>831.5</ele>
        <time>2015-09-24T10:13:41Z</time>
      </trkpt>
      <trkpt lat="42.24213" lon="0.02748">
        <ele>831.6</ele>
        <time>2015-09-24T10:13:42Z</time>
      </trkpt>
      <trkpt lat="42.24217" lon="0.02747">
        <ele>831.6</ele>
        <time>2015-09-24T10:13:43Z</time>
      </trkpt>
      <trkpt lat="42.24221" lon="0.02746">
        <ele>831.6</ele>
        <time>2015-09-24T10:13:45Z</time>
      </trkpt>
      <trkpt lat="42.24227" lon="0.02744">
        <ele>831.5</ele>
        <time>2015-09-24T10:13:47Z</time>
      </trkpt>
      <trkpt lat="42.2423" lon="0.02744">
        <ele>831.4</ele>
        <time>2015-09-24T10:13:48Z</time>
      </trkpt>
      <trkpt lat="42.24234" lon="0.02743">
        <ele>831.2</ele>
        <time>2015-09-24T10:13:49Z</time>
      </trkpt>
      <trkpt lat="42.24238" lon="0.02742">
        <ele>831.2</ele>
        <time>2015-09-24T10:13:50Z</time>
      </trkpt>
      <trkpt lat="42.24242" lon="0.0274">
        <ele>831.3</ele>
        <time>2015-09-24T10:13:51Z</time>
      </trkpt>
      <trkpt lat="42.24247" lon="0.02736">
        <ele>831.9</ele>
        <time>2015-09-24T10:13:52Z</time>
      </trkpt>
      <trkpt lat="42.24251" lon="0.02734">
        <ele>832</ele>
        <time>2015-09-24T10:13:53Z</time>
      </trkpt>
      <trkpt lat="42.24254" lon="0.02732">
        <ele>832.2</ele>
        <time>2015-09-24T10:13:54Z</time>
      </trkpt>
      <trkpt lat="42.24257" lon="0.02731">
        <ele>832.3</ele>
        <time>2015-09-24T10:13:55Z</time>
      </trkpt>
      <trkpt lat="42.24261" lon="0.02731">
        <ele>832</ele>
        <time>2015-09-24T10:13:56Z</time>
      </trkpt>
      <trkpt lat="42.24265" lon="0.02732">
        <ele>831.7</ele>
        <time>2015-09-24T10:13:57Z</time>
      </trkpt>
      <trkpt lat="42.24268" lon="0.02733">
        <ele>831.2</ele>
        <time>2015-09-24T10:13:58Z</time>
      </trkpt>
      <trkpt lat="42.24272" lon="0.02735">
        <ele>830.7</ele>
        <time>2015-09-24T10:13:59Z</time>
      </trkpt>
      <trkpt lat="42.24276" lon="0.02735">
        <ele>830.5</ele>
        <time>2015-09-24T10:14:00Z</time>
      </trkpt>
      <trkpt lat="42.2428" lon="0.02733">
        <ele>830.7</ele>
        <time>2015-09-24T10:14:01Z</time>
      </trkpt>
      <trkpt lat="42.24283" lon="0.02731">
        <ele>830.9</ele>
        <time>2015-09-24T10:14:02Z</time>
      </trkpt>
      <trkpt lat="42.24287" lon="0.02729">
        <ele>831</ele>
        <time>2015-09-24T10:14:03Z</time>
      </trkpt>
      <trkpt lat="42.24291" lon="0.02728">
        <ele>831.1</ele>
        <time>2015-09-24T10:14:04Z</time>
      </trkpt>
      <trkpt lat="42.24295" lon="0.02726">
        <ele>831.2</ele>
        <time>2015-09-24T10:14:05Z</time>
      </trkpt>
      <trkpt lat="42.24299" lon="0.02725">
        <ele>831.4</ele>
        <time>2015-09-24T10:14:06Z</time>
      </trkpt>
      <trkpt lat="42.24303" lon="0.02724">
        <ele>831.5</ele>
        <time>2015-09-24T10:14:07Z</time>
      </trkpt>
      <trkpt lat="42.24306" lon="0.02724">
        <ele>831.4</ele>
        <time>2015-09-24T10:14:08Z</time>
      </trkpt>
      <trkpt lat="42.2431" lon="0.02725">
        <ele>831.1</ele>
        <time>2015-09-24T10:14:09Z</time>
      </trkpt>
      <trkpt lat="42.24314" lon="0.02726">
        <ele>830.8</ele>
        <time>2015-09-24T10:14:10Z</time>
      </trkpt>
      <trkpt lat="42.24317" lon="0.02727">
        <ele>830.5</ele>
        <time>2015-09-24T10:14:11Z</time>
      </trkpt>
      <trkpt lat="42.24321" lon="0.02727">
        <ele>830.4</ele>
        <time>2015-09-24T10:14:12Z</time>
      </trkpt>
      <trkpt lat="42.24325" lon="0.02726">
        <ele>830.4</ele>
        <time>2015-09-24T10:14:14Z</time>
      </trkpt>
      <trkpt lat="42.24329" lon="0.02725">
        <ele>830.6</ele>
        <time>2015-09-24T10:14:16Z</time>
      </trkpt>
      <trkpt lat="42.24333" lon="0.02723">
        <ele>830.8</ele>
        <time>2015-09-24T10:14:18Z</time>
      </trkpt>
      <trkpt lat="42.24337" lon="0.02721">
        <ele>831</ele>
        <time>2015-09-24T10:14:20Z</time>
      </trkpt>
      <trkpt lat="42.2434" lon="0.0272">
        <ele>831.2</ele>
        <time>2015-09-24T10:14:22Z</time>
      </trkpt>
      <trkpt lat="42.24344" lon="0.02719">
        <ele>831.2</ele>
        <time>2015-09-24T10:14:24Z</time>
      </trkpt>
      <trkpt lat="42.24349" lon="0.02719">
        <ele>831</ele>
        <time>2015-09-24T10:14:26Z</time>
      </trkpt>
      <trkpt lat="42.24353" lon="0.0272">
        <ele>830.7</ele>
        <time>2015-09-24T10:14:27Z</time>
      </trkpt>
      <trkpt lat="42.24358" lon="0.02722">
        <ele>830.3</ele>
        <time>2015-09-24T10:14:28Z</time>
      </trkpt>
      <trkpt lat="42.24362" lon="0.02723">
        <ele>829.9</ele>
        <time>2015-09-24T10:14:29Z</time>
      </trkpt>
      <trkpt lat="42.24367" lon="0.02725">
        <ele>829.5</ele>
        <time>2015-09-24T10:14:30Z</time>
      </trkpt>
      <trkpt lat="42.24371" lon="0.02726">
        <ele>829.2</ele>
        <time>2015-09-24T10:14:31Z</time>
      </trkpt>
      <trkpt lat="42.24375" lon="0.02727">
        <ele>828.9</ele>
        <time>2015-09-24T10:14:32Z</time>
      </trkpt>
      <trkpt lat="42.24378" lon="0.02728">
        <ele>829</ele>
        <time>2015-09-24T10:14:34Z</time>
      </trkpt>
      <trkpt lat="42.24382" lon="0.02727">
        <ele>829.4</ele>
        <time>2015-09-24T10:14:36Z</time>
      </trkpt>
      <trkpt lat="42.24385" lon="0.02727">
        <ele>829.6</ele>
        <time>2015-09-24T10:14:38Z</time>
      </trkpt>
      <trkpt lat="42.24388" lon="0.02726">
        <ele>829.9</ele>
        <time>2015-09-24T10:14:40Z</time>
      </trkpt>
      <trkpt lat="42.24391" lon="0.02726">
        <ele>830.3</ele>
        <time>2015-09-24T10:14:42Z</time>
      </trkpt>
      <trkpt lat="42.24394" lon="0.02725">
        <ele>830.7</ele>
        <time>2015-09-24T10:14:44Z</time>
      </trkpt>
      <trkpt lat="42.24397" lon="0.02725">
        <ele>830.9</ele>
        <time>2015-09-24T10:14:46Z</time>
      </trkpt>
      <trkpt lat="42.24399" lon="0.02726">
        <ele>830.9</ele>
        <time>2015-09-24T10:14:48Z</time>
      </trkpt>
      <trkpt lat="42.24403" lon="0.02726">
        <ele>831.1</ele>
        <time>2015-09-24T10:14:51Z</time>
      </trkpt>
      <trkpt lat="42.24406" lon="0.02727">
        <ele>831.1</ele>
        <time>2015-09-24T10:14:57Z</time>
      </trkpt>
      <trkpt lat="42.24408" lon="0.02726">
        <ele>831.5</ele>
        <time>2015-09-24T10:15:04Z</time>
      </trkpt>
      <trkpt lat="42.24411" lon="0.02725">
        <ele>831.8</ele>
        <time>2015-09-24T10:15:09Z</time>
      </trkpt>
      <trkpt lat="42.24414" lon="0.02726">
        <ele>832</ele>
        <time>2015-09-24T10:15:14Z</time>
      </trkpt>
      <trkpt lat="42.24418" lon="0.02725">
        <ele>832.3</ele>
        <time>2015-09-24T10:15:19Z</time>
      </trkpt>
      <trkpt lat="42.2442" lon="0.02725">
        <ele>832.5</ele>
        <time>2015-09-24T10:15:23Z</time>
      </trkpt>
      <trkpt lat="42.24423" lon="0.02727">
        <ele>832.5</ele>
        <time>2015-09-24T10:15:27Z</time>
      </trkpt>
      <trkpt lat="42.24426" lon="0.02728">
        <ele>832.5</ele>
        <time>2015-09-24T10:15:32Z</time>
      </trkpt>
      <trkpt lat="42.24429" lon="0.02729">
        <ele>832.5</ele>
        <time>2015-09-24T10:15:36Z</time>
      </trkpt>
      <trkpt lat="42.24432" lon="0.02729">
        <ele>832.9</ele>
        <time>2015-09-24T10:15:40Z</time>
      </trkpt>
      <trkpt lat="42.24435" lon="0.02728">
        <ele>833.2</ele>
        <time>2015-09-24T10:15:45Z</time>
      </trkpt>
      <trkpt lat="42.24439" lon="0.02728">
        <ele>833.6</ele>
        <time>2015-09-24T10:15:47Z</time>
      </trkpt>
      <trkpt lat="42.24443" lon="0.02728">
        <ele>833.8</ele>
        <time>2015-09-24T10:15:49Z</time>
      </trkpt>
      <trkpt lat="42.24446" lon="0.02728">
        <ele>834.1</ele>
        <time>2015-09-24T10:15:51Z</time>
      </trkpt>
      <trkpt lat="42.2445" lon="0.02728">
        <ele>834.4</ele>
        <time>2015-09-24T10:15:53Z</time>
      </trkpt>
      <trkpt lat="42.24453" lon="0.02728">
        <ele>834.6</ele>
        <time>2015-09-24T10:15:55Z</time>
      </trkpt>
      <trkpt lat="42.24456" lon="0.02728">
        <ele>834.8</ele>
        <time>2015-09-24T10:15:57Z</time>
      </trkpt>
      <trkpt lat="42.2446" lon="0.02728">
        <ele>834.9</ele>
        <time>2015-09-24T10:16:00Z</time>
      </trkpt>
      <trkpt lat="42.24463" lon="0.02729">
        <ele>834.9</ele>
        <time>2015-09-24T10:16:02Z</time>
      </trkpt>
      <trkpt lat="42.24466" lon="0.0273">
        <ele>834.9</ele>
        <time>2015-09-24T10:16:04Z</time>
      </trkpt>
      <trkpt lat="42.24469" lon="0.0273">
        <ele>835</ele>
        <time>2015-09-24T10:16:06Z</time>
      </trkpt>
      <trkpt lat="42.24473" lon="0.0273">
        <ele>835.2</ele>
        <time>2015-09-24T10:16:08Z</time>
      </trkpt>
      <trkpt lat="42.24476" lon="0.02729">
        <ele>835.5</ele>
        <time>2015-09-24T10:16:10Z</time>
      </trkpt>
      <trkpt lat="42.2448" lon="0.02729">
        <ele>835.7</ele>
        <time>2015-09-24T10:16:12Z</time>
      </trkpt>
      <trkpt lat="42.24484" lon="0.02728">
        <ele>835.9</ele>
        <time>2015-09-24T10:16:14Z</time>
      </trkpt>
      <trkpt lat="42.24488" lon="0.02729">
        <ele>835.9</ele>
        <time>2015-09-24T10:16:16Z</time>
      </trkpt>
      <trkpt lat="42.24491" lon="0.02729">
        <ele>836</ele>
        <time>2015-09-24T10:16:18Z</time>
      </trkpt>
      <trkpt lat="42.24495" lon="0.02729">
        <ele>836.2</ele>
        <time>2015-09-24T10:16:20Z</time>
      </trkpt>
      <trkpt lat="42.24498" lon="0.02729">
        <ele>836.3</ele>
        <time>2015-09-24T10:16:22Z</time>
      </trkpt>
      <trkpt lat="42.24502" lon="0.02728">
        <ele>836.6</ele>
        <time>2015-09-24T10:16:24Z</time>
      </trkpt>
      <trkpt lat="42.24505" lon="0.02725">
        <ele>837</ele>
        <time>2015-09-24T10:16:26Z</time>
      </trkpt>
      <trkpt lat="42.24508" lon="0.02722">
        <ele>837.5</ele>
        <time>2015-09-24T10:16:28Z</time>
      </trkpt>
      <trkpt lat="42.24511" lon="0.02718">
        <ele>838.1</ele>
        <time>2015-09-24T10:16:30Z</time>
      </trkpt>
      <trkpt lat="42.24514" lon="0.02715">
        <ele>838.6</ele>
        <time>2015-09-24T10:16:32Z</time>
      </trkpt>
      <trkpt lat="42.24517" lon="0.02712">
        <ele>839</ele>
        <time>2015-09-24T10:16:34Z</time>
      </trkpt>
      <trkpt lat="42.24521" lon="0.02709">
        <ele>839.4</ele>
        <time>2015-09-24T10:16:36Z</time>
      </trkpt>
      <trkpt lat="42.24525" lon="0.02706">
        <ele>840</ele>
        <time>2015-09-24T10:16:38Z</time>
      </trkpt>
      <trkpt lat="42.24528" lon="0.02702">
        <ele>840.9</ele>
        <time>2015-09-24T10:16:40Z</time>
      </trkpt>
      <trkpt lat="42.24531" lon="0.02698">
        <ele>841.8</ele>
        <time>2015-09-24T10:16:42Z</time>
      </trkpt>
      <trkpt lat="42.24532" lon="0.02693">
        <ele>842.8</ele>
        <time>2015-09-24T10:16:44Z</time>
      </trkpt>
      <trkpt lat="42.24533" lon="0.02689">
        <ele>843.7</ele>
        <time>2015-09-24T10:16:46Z</time>
      </trkpt>
      <trkpt lat="42.24535" lon="0.02684">
        <ele>844.6</ele>
        <time>2015-09-24T10:16:48Z</time>
      </trkpt>
      <trkpt lat="42.24536" lon="0.0268">
        <ele>845.4</ele>
        <time>2015-09-24T10:16:50Z</time>
      </trkpt>
      <trkpt lat="42.24537" lon="0.02676">
        <ele>846.3</ele>
        <time>2015-09-24T10:16:52Z</time>
      </trkpt>
      <trkpt lat="42.24539" lon="0.02671">
        <ele>847.1</ele>
        <time>2015-09-24T10:16:54Z</time>
      </trkpt>
      <trkpt lat="42.24541" lon="0.02667">
        <ele>848</ele>
        <time>2015-09-24T10:16:56Z</time>
      </trkpt>
      <trkpt lat="42.24543" lon="0.02663">
        <ele>848.7</ele>
        <time>2015-09-24T10:16:58Z</time>
      </trkpt>
      <trkpt lat="42.24545" lon="0.02659">
        <ele>849.3</ele>
        <time>2015-09-24T10:17:00Z</time>
      </trkpt>
      <trkpt lat="42.24549" lon="0.02655">
        <ele>850</ele>
        <time>2015-09-24T10:17:02Z</time>
      </trkpt>
      <trkpt lat="42.24551" lon="0.02652">
        <ele>850.4</ele>
        <time>2015-09-24T10:17:03Z</time>
      </trkpt>
      <trkpt lat="42.24554" lon="0.02649">
        <ele>850.9</ele>
        <time>2015-09-24T10:17:04Z</time>
      </trkpt>
      <trkpt lat="42.24557" lon="0.02646">
        <ele>851.3</ele>
        <time>2015-09-24T10:17:05Z</time>
      </trkpt>
      <trkpt lat="42.2456" lon="0.02644">
        <ele>851.5</ele>
        <time>2015-09-24T10:17:06Z</time>
      </trkpt>
      <trkpt lat="42.24563" lon="0.02643">
        <ele>851.6</ele>
        <time>2015-09-24T10:17:07Z</time>
      </trkpt>
      <trkpt lat="42.24567" lon="0.02641">
        <ele>851.7</ele>
        <time>2015-09-24T10:17:08Z</time>
      </trkpt>
      <trkpt lat="42.2457" lon="0.0264">
        <ele>851.8</ele>
        <time>2015-09-24T10:17:09Z</time>
      </trkpt>
      <trkpt lat="42.24573" lon="0.0264">
        <ele>851.8</ele>
        <time>2015-09-24T10:17:10Z</time>
      </trkpt>
      <trkpt lat="42.24577" lon="0.02639">
        <ele>851.7</ele>
        <time>2015-09-24T10:17:11Z</time>
      </trkpt>
      <trkpt lat="42.2458" lon="0.02638">
        <ele>851.7</ele>
        <time>2015-09-24T10:17:12Z</time>
      </trkpt>
      <trkpt lat="42.24582" lon="0.02637">
        <ele>851.9</ele>
        <time>2015-09-24T10:17:13Z</time>
      </trkpt>
      <trkpt lat="42.24585" lon="0.02635">
        <ele>852</ele>
        <time>2015-09-24T10:17:14Z</time>
      </trkpt>
      <trkpt lat="42.24589" lon="0.02635">
        <ele>852</ele>
        <time>2015-09-24T10:17:16Z</time>
      </trkpt>
      <trkpt lat="42.24593" lon="0.02635">
        <ele>851.8</ele>
        <time>2015-09-24T10:17:19Z</time>
      </trkpt>
      <trkpt lat="42.24596" lon="0.02635">
        <ele>851.6</ele>
        <time>2015-09-24T10:17:21Z</time>
      </trkpt>
      <trkpt lat="42.246" lon="0.02634">
        <ele>851.5</ele>
        <time>2015-09-24T10:17:23Z</time>
      </trkpt>
      <trkpt lat="42.24604" lon="0.02634">
        <ele>851.3</ele>
        <time>2015-09-24T10:17:25Z</time>
      </trkpt>
      <trkpt lat="42.24608" lon="0.02639">
        <ele>850.3</ele>
        <time>2015-09-24T10:17:27Z</time>
      </trkpt>
      <trkpt lat="42.2461" lon="0.02642">
        <ele>849.6</ele>
        <time>2015-09-24T10:17:28Z</time>
      </trkpt>
      <trkpt lat="42.24612" lon="0.02645">
        <ele>849</ele>
        <time>2015-09-24T10:17:29Z</time>
      </trkpt>
      <trkpt lat="42.24614" lon="0.02647">
        <ele>848.4</ele>
        <time>2015-09-24T10:17:30Z</time>
      </trkpt>
      <trkpt lat="42.24617" lon="0.0265">
        <ele>847.9</ele>
        <time>2015-09-24T10:17:31Z</time>
      </trkpt>
      <trkpt lat="42.24619" lon="0.02653">
        <ele>847.3</ele>
        <time>2015-09-24T10:17:32Z</time>
      </trkpt>
      <trkpt lat="42.24621" lon="0.02655">
        <ele>846.8</ele>
        <time>2015-09-24T10:17:33Z</time>
      </trkpt>
      <trkpt lat="42.24623" lon="0.02657">
        <ele>846.3</ele>
        <time>2015-09-24T10:17:34Z</time>
      </trkpt>
      <trkpt lat="42.24626" lon="0.02658">
        <ele>846.1</ele>
        <time>2015-09-24T10:17:35Z</time>
      </trkpt>
      <trkpt lat="42.24629" lon="0.02659">
        <ele>846.2</ele>
        <time>2015-09-24T10:17:36Z</time>
      </trkpt>
      <trkpt lat="42.24633" lon="0.02659">
        <ele>846.4</ele>
        <time>2015-09-24T10:17:37Z</time>
      </trkpt>
      <trkpt lat="42.24636" lon="0.02659">
        <ele>846.7</ele>
        <time>2015-09-24T10:17:38Z</time>
      </trkpt>
      <trkpt lat="42.2464" lon="0.02658">
        <ele>847.1</ele>
        <time>2015-09-24T10:17:39Z</time>
      </trkpt>
      <trkpt lat="42.24644" lon="0.02657">
        <ele>847.5</ele>
        <time>2015-09-24T10:17:40Z</time>
      </trkpt>
      <trkpt lat="42.24648" lon="0.02657">
        <ele>847.9</ele>
        <time>2015-09-24T10:17:41Z</time>
      </trkpt>
      <trkpt lat="42.24652" lon="0.02656">
        <ele>848.2</ele>
        <time>2015-09-24T10:17:42Z</time>
      </trkpt>
      <trkpt lat="42.24655" lon="0.02656">
        <ele>848.5</ele>
        <time>2015-09-24T10:17:43Z</time>
      </trkpt>
      <trkpt lat="42.24659" lon="0.02656">
        <ele>848.8</ele>
        <time>2015-09-24T10:17:44Z</time>
      </trkpt>
      <trkpt lat="42.24662" lon="0.02655">
        <ele>849.1</ele>
        <time>2015-09-24T10:17:45Z</time>
      </trkpt>
      <trkpt lat="42.24665" lon="0.02654">
        <ele>849.5</ele>
        <time>2015-09-24T10:17:46Z</time>
      </trkpt>
      <trkpt lat="42.24669" lon="0.02654">
        <ele>849.8</ele>
        <time>2015-09-24T10:17:47Z</time>
      </trkpt>
      <trkpt lat="42.24672" lon="0.02653">
        <ele>850.2</ele>
        <time>2015-09-24T10:17:48Z</time>
      </trkpt>
      <trkpt lat="42.24677" lon="0.02652">
        <ele>850.7</ele>
        <time>2015-09-24T10:17:50Z</time>
      </trkpt>
      <trkpt lat="42.2468" lon="0.02651">
        <ele>851</ele>
        <time>2015-09-24T10:17:51Z</time>
      </trkpt>
      <trkpt lat="42.24682" lon="0.0265">
        <ele>851.3</ele>
        <time>2015-09-24T10:17:52Z</time>
      </trkpt>
      <trkpt lat="42.24686" lon="0.0265">
        <ele>851.6</ele>
        <time>2015-09-24T10:17:53Z</time>
      </trkpt>
      <trkpt lat="42.24688" lon="0.02649">
        <ele>851.9</ele>
        <time>2015-09-24T10:17:54Z</time>
      </trkpt>
      <trkpt lat="42.24692" lon="0.02649">
        <ele>852.1</ele>
        <time>2015-09-24T10:17:55Z</time>
      </trkpt>
      <trkpt lat="42.24695" lon="0.02649">
        <ele>852.4</ele>
        <time>2015-09-24T10:17:56Z</time>
      </trkpt>
      <trkpt lat="42.24698" lon="0.02649">
        <ele>852.6</ele>
        <time>2015-09-24T10:17:57Z</time>
      </trkpt>
      <trkpt lat="42.24701" lon="0.02648">
        <ele>852.9</ele>
        <time>2015-09-24T10:17:58Z</time>
      </trkpt>
      <trkpt lat="42.24704" lon="0.02649">
        <ele>853</ele>
        <time>2015-09-24T10:17:59Z</time>
      </trkpt>
      <trkpt lat="42.24707" lon="0.0265">
        <ele>853.1</ele>
        <time>2015-09-24T10:18:00Z</time>
      </trkpt>
      <trkpt lat="42.24711" lon="0.0265">
        <ele>853.4</ele>
        <time>2015-09-24T10:18:02Z</time>
      </trkpt>
      <trkpt lat="42.24716" lon="0.02652">
        <ele>853.7</ele>
        <time>2015-09-24T10:18:04Z</time>
      </trkpt>
      <trkpt lat="42.24721" lon="0.02653">
        <ele>854.1</ele>
        <time>2015-09-24T10:18:06Z</time>
      </trkpt>
      <trkpt lat="42.24723" lon="0.02654">
        <ele>854.3</ele>
        <time>2015-09-24T10:18:07Z</time>
      </trkpt>
      <trkpt lat="42.24728" lon="0.02655">
        <ele>854.8</ele>
        <time>2015-09-24T10:18:09Z</time>
      </trkpt>
      <trkpt lat="42.24733" lon="0.02653">
        <ele>855.6</ele>
        <time>2015-09-24T10:18:11Z</time>
      </trkpt>
      <trkpt lat="42.24737" lon="0.02651">
        <ele>856.4</ele>
        <time>2015-09-24T10:18:13Z</time>
      </trkpt>
      <trkpt lat="42.24741" lon="0.0265">
        <ele>857</ele>
        <time>2015-09-24T10:18:15Z</time>
      </trkpt>
      <trkpt lat="42.24744" lon="0.02651">
        <ele>857.3</ele>
        <time>2015-09-24T10:18:17Z</time>
      </trkpt>
      <trkpt lat="42.24748" lon="0.02652">
        <ele>857.5</ele>
        <time>2015-09-24T10:18:19Z</time>
      </trkpt>
      <trkpt lat="42.24751" lon="0.02654">
        <ele>857.6</ele>
        <time>2015-09-24T10:18:21Z</time>
      </trkpt>
      <trkpt lat="42.24755" lon="0.02656">
        <ele>857.8</ele>
        <time>2015-09-24T10:18:23Z</time>
      </trkpt>
      <trkpt lat="42.24759" lon="0.02656">
        <ele>858.3</ele>
        <time>2015-09-24T10:18:25Z</time>
      </trkpt>
      <trkpt lat="42.24763" lon="0.02656">
        <ele>858.7</ele>
        <time>2015-09-24T10:18:27Z</time>
      </trkpt>
      <trkpt lat="42.24766" lon="0.02656">
        <ele>859.1</ele>
        <time>2015-09-24T10:18:29Z</time>
      </trkpt>
      <trkpt lat="42.24769" lon="0.02655">
        <ele>859.6</ele>
        <time>2015-09-24T10:18:31Z</time>
      </trkpt>
      <trkpt lat="42.24772" lon="0.02656">
        <ele>859.9</ele>
        <time>2015-09-24T10:18:44Z</time>
      </trkpt>
      <trkpt lat="42.24775" lon="0.02657">
        <ele>860</ele>
        <time>2015-09-24T10:18:49Z</time>
      </trkpt>
      <trkpt lat="42.24778" lon="0.02658">
        <ele>860.2</ele>
        <time>2015-09-24T10:18:58Z</time>
      </trkpt>
      <trkpt lat="42.24782" lon="0.02658">
        <ele>860.7</ele>
        <time>2015-09-24T10:19:01Z</time>
      </trkpt>
      <trkpt lat="42.24785" lon="0.0266">
        <ele>860.8</ele>
        <time>2015-09-24T10:19:03Z</time>
      </trkpt>
      <trkpt lat="42.24788" lon="0.02663">
        <ele>860.7</ele>
        <time>2015-09-24T10:19:05Z</time>
      </trkpt>
      <trkpt lat="42.24791" lon="0.02666">
        <ele>860.5</ele>
        <time>2015-09-24T10:19:07Z</time>
      </trkpt>
      <trkpt lat="42.24794" lon="0.02671">
        <ele>860.3</ele>
        <time>2015-09-24T10:19:09Z</time>
      </trkpt>
      <trkpt lat="42.24798" lon="0.02675">
        <ele>860.4</ele>
        <time>2015-09-24T10:19:11Z</time>
      </trkpt>
      <trkpt lat="42.24801" lon="0.0268">
        <ele>860.2</ele>
        <time>2015-09-24T10:19:13Z</time>
      </trkpt>
      <trkpt lat="42.24804" lon="0.02686">
        <ele>859.7</ele>
        <time>2015-09-24T10:19:15Z</time>
      </trkpt>
      <trkpt lat="42.24806" lon="0.02692">
        <ele>859.2</ele>
        <time>2015-09-24T10:19:17Z</time>
      </trkpt>
      <trkpt lat="42.24808" lon="0.02695">
        <ele>858.9</ele>
        <time>2015-09-24T10:19:18Z</time>
      </trkpt>
      <trkpt lat="42.2481" lon="0.02699">
        <ele>858.7</ele>
        <time>2015-09-24T10:19:19Z</time>
      </trkpt>
      <trkpt lat="42.24811" lon="0.02702">
        <ele>858.6</ele>
        <time>2015-09-24T10:19:20Z</time>
      </trkpt>
      <trkpt lat="42.24813" lon="0.02705">
        <ele>858.3</ele>
        <time>2015-09-24T10:19:21Z</time>
      </trkpt>
      <trkpt lat="42.24815" lon="0.02709">
        <ele>858.2</ele>
        <time>2015-09-24T10:19:22Z</time>
      </trkpt>
      <trkpt lat="42.24816" lon="0.02712">
        <ele>858.7</ele>
        <time>2015-09-24T10:19:23Z</time>
      </trkpt>
      <trkpt lat="42.24817" lon="0.02716">
        <ele>859.1</ele>
        <time>2015-09-24T10:19:24Z</time>
      </trkpt>
      <trkpt lat="42.24819" lon="0.02719">
        <ele>859.5</ele>
        <time>2015-09-24T10:19:25Z</time>
      </trkpt>
      <trkpt lat="42.24822" lon="0.02725">
        <ele>860.3</ele>
        <time>2015-09-24T10:19:27Z</time>
      </trkpt>
      <trkpt lat="42.24824" lon="0.02728">
        <ele>860.7</ele>
        <time>2015-09-24T10:19:28Z</time>
      </trkpt>
      <trkpt lat="42.24826" lon="0.0273">
        <ele>861.1</ele>
        <time>2015-09-24T10:19:29Z</time>
      </trkpt>
      <trkpt lat="42.24829" lon="0.02732">
        <ele>861.5</ele>
        <time>2015-09-24T10:19:30Z</time>
      </trkpt>
      <trkpt lat="42.24832" lon="0.02734">
        <ele>861.9</ele>
        <time>2015-09-24T10:19:31Z</time>
      </trkpt>
      <trkpt lat="42.24835" lon="0.02735">
        <ele>862.3</ele>
        <time>2015-09-24T10:19:32Z</time>
      </trkpt>
      <trkpt lat="42.24838" lon="0.02735">
        <ele>862.6</ele>
        <time>2015-09-24T10:19:33Z</time>
      </trkpt>
      <trkpt lat="42.2484" lon="0.02735">
        <ele>863</ele>
        <time>2015-09-24T10:19:34Z</time>
      </trkpt>
      <trkpt lat="42.24843" lon="0.02736">
        <ele>863.3</ele>
        <time>2015-09-24T10:19:35Z</time>
      </trkpt>
      <trkpt lat="42.24848" lon="0.02737">
        <ele>863.8</ele>
        <time>2015-09-24T10:19:37Z</time>
      </trkpt>
      <trkpt lat="42.2485" lon="0.02739">
        <ele>864.1</ele>
        <time>2015-09-24T10:19:45Z</time>
      </trkpt>
      <trkpt lat="42.24853" lon="0.02742">
        <ele>864.4</ele>
        <time>2015-09-24T10:19:47Z</time>
      </trkpt>
      <trkpt lat="42.24856" lon="0.02744">
        <ele>864.6</ele>
        <time>2015-09-24T10:19:49Z</time>
      </trkpt>
      <trkpt lat="42.24858" lon="0.0274">
        <ele>864.9</ele>
        <time>2015-09-24T10:20:07Z</time>
      </trkpt>
      <trkpt lat="42.24858" lon="0.02737">
        <ele>865</ele>
        <time>2015-09-24T10:20:10Z</time>
      </trkpt>
      <trkpt lat="42.24856" lon="0.02734">
        <ele>864.8</ele>
        <time>2015-09-24T10:20:14Z</time>
      </trkpt>
      <trkpt lat="42.2485" lon="0.02732">
        <ele>864.2</ele>
        <time>2015-09-24T10:21:02Z</time>
      </trkpt>
      <trkpt lat="42.24848" lon="0.02731">
        <ele>863.9</ele>
        <time>2015-09-24T10:21:04Z</time>
      </trkpt>
      <trkpt lat="42.24845" lon="0.02729">
        <ele>863.5</ele>
        <time>2015-09-24T10:21:06Z</time>
      </trkpt>
      <trkpt lat="42.24841" lon="0.02727">
        <ele>863</ele>
        <time>2015-09-24T10:21:08Z</time>
      </trkpt>
      <trkpt lat="42.24838" lon="0.02726">
        <ele>862.6</ele>
        <time>2015-09-24T10:21:10Z</time>
      </trkpt>
      <trkpt lat="42.24835" lon="0.02723">
        <ele>862.1</ele>
        <time>2015-09-24T10:21:12Z</time>
      </trkpt>
      <trkpt lat="42.24833" lon="0.02719">
        <ele>861.7</ele>
        <time>2015-09-24T10:21:14Z</time>
      </trkpt>
      <trkpt lat="42.24831" lon="0.02715">
        <ele>861.3</ele>
        <time>2015-09-24T10:21:35Z</time>
      </trkpt>
      <trkpt lat="42.24828" lon="0.02713">
        <ele>860.7</ele>
        <time>2015-09-24T10:21:37Z</time>
      </trkpt>
      <trkpt lat="42.24824" lon="0.02708">
        <ele>859.9</ele>
        <time>2015-09-24T10:21:39Z</time>
      </trkpt>
      <trkpt lat="42.24821" lon="0.02703">
        <ele>860</ele>
        <time>2015-09-24T10:21:41Z</time>
      </trkpt>
      <trkpt lat="42.24818" lon="0.02697">
        <ele>860.4</ele>
        <time>2015-09-24T10:21:43Z</time>
      </trkpt>
      <trkpt lat="42.24816" lon="0.02693">
        <ele>860.7</ele>
        <time>2015-09-24T10:21:44Z</time>
      </trkpt>
      <trkpt lat="42.24814" lon="0.0269">
        <ele>861</ele>
        <time>2015-09-24T10:21:45Z</time>
      </trkpt>
      <trkpt lat="42.24812" lon="0.02686">
        <ele>861.2</ele>
        <time>2015-09-24T10:21:46Z</time>
      </trkpt>
      <trkpt lat="42.2481" lon="0.02681">
        <ele>861.6</ele>
        <time>2015-09-24T10:21:47Z</time>
      </trkpt>
      <trkpt lat="42.24808" lon="0.02676">
        <ele>862</ele>
        <time>2015-09-24T10:21:48Z</time>
      </trkpt>
      <trkpt lat="42.24807" lon="0.02672">
        <ele>862.3</ele>
        <time>2015-09-24T10:21:49Z</time>
      </trkpt>
      <trkpt lat="42.24805" lon="0.02669">
        <ele>862.5</ele>
        <time>2015-09-24T10:21:50Z</time>
      </trkpt>
      <trkpt lat="42.24802" lon="0.02666">
        <ele>862.5</ele>
        <time>2015-09-24T10:21:51Z</time>
      </trkpt>
      <trkpt lat="42.248" lon="0.02663">
        <ele>862.6</ele>
        <time>2015-09-24T10:21:52Z</time>
      </trkpt>
      <trkpt lat="42.24797" lon="0.02657">
        <ele>862.9</ele>
        <time>2015-09-24T10:21:54Z</time>
      </trkpt>
      <trkpt lat="42.24793" lon="0.02653">
        <ele>862.9</ele>
        <time>2015-09-24T10:21:56Z</time>
      </trkpt>
      <trkpt lat="42.2479" lon="0.02648">
        <ele>863.1</ele>
        <time>2015-09-24T10:21:58Z</time>
      </trkpt>
      <trkpt lat="42.24786" lon="0.02643">
        <ele>863.4</ele>
        <time>2015-09-24T10:22:00Z</time>
      </trkpt>
      <trkpt lat="42.24781" lon="0.0264">
        <ele>863.4</ele>
        <time>2015-09-24T10:22:02Z</time>
      </trkpt>
      <trkpt lat="42.24777" lon="0.02637">
        <ele>863.4</ele>
        <time>2015-09-24T10:22:04Z</time>
      </trkpt>
      <trkpt lat="42.24773" lon="0.02634">
        <ele>863.4</ele>
        <time>2015-09-24T10:22:06Z</time>
      </trkpt>
      <trkpt lat="42.24769" lon="0.02631">
        <ele>863.3</ele>
        <time>2015-09-24T10:22:08Z</time>
      </trkpt>
      <trkpt lat="42.24764" lon="0.02628">
        <ele>863.2</ele>
        <time>2015-09-24T10:22:10Z</time>
      </trkpt>
      <trkpt lat="42.24762" lon="0.02627">
        <ele>863.1</ele>
        <time>2015-09-24T10:22:11Z</time>
      </trkpt>
      <trkpt lat="42.24759" lon="0.02625">
        <ele>863.1</ele>
        <time>2015-09-24T10:22:12Z</time>
      </trkpt>
      <trkpt lat="42.24757" lon="0.02623">
        <ele>863.1</ele>
        <time>2015-09-24T10:22:13Z</time>
      </trkpt>
      <trkpt lat="42.24755" lon="0.02621">
        <ele>863.2</ele>
        <time>2015-09-24T10:22:14Z</time>
      </trkpt>
      <trkpt lat="42.24752" lon="0.02618">
        <ele>863.2</ele>
        <time>2015-09-24T10:22:15Z</time>
      </trkpt>
      <trkpt lat="42.2475" lon="0.02616">
        <ele>863.3</ele>
        <time>2015-09-24T10:22:16Z</time>
      </trkpt>
      <trkpt lat="42.24748" lon="0.02614">
        <ele>863.3</ele>
        <time>2015-09-24T10:22:17Z</time>
      </trkpt>
      <trkpt lat="42.24743" lon="0.02611">
        <ele>863.4</ele>
        <time>2015-09-24T10:22:19Z</time>
      </trkpt>
      <trkpt lat="42.24739" lon="0.02608">
        <ele>863.3</ele>
        <time>2015-09-24T10:22:21Z</time>
      </trkpt>
      <trkpt lat="42.24734" lon="0.02606">
        <ele>863.2</ele>
        <time>2015-09-24T10:22:23Z</time>
      </trkpt>
      <trkpt lat="42.2473" lon="0.02604">
        <ele>863</ele>
        <time>2015-09-24T10:22:25Z</time>
      </trkpt>
      <trkpt lat="42.24726" lon="0.02601">
        <ele>863.1</ele>
        <time>2015-09-24T10:22:27Z</time>
      </trkpt>
      <trkpt lat="42.24722" lon="0.02598">
        <ele>863.2</ele>
        <time>2015-09-24T10:22:29Z</time>
      </trkpt>
      <trkpt lat="42.24718" lon="0.02595">
        <ele>863.2</ele>
        <time>2015-09-24T10:22:31Z</time>
      </trkpt>
      <trkpt lat="42.24714" lon="0.02592">
        <ele>863.4</ele>
        <time>2015-09-24T10:22:33Z</time>
      </trkpt>
      <trkpt lat="42.24711" lon="0.02589">
        <ele>863.7</ele>
        <time>2015-09-24T10:22:35Z</time>
      </trkpt>
      <trkpt lat="42.24708" lon="0.02585">
        <ele>864.2</ele>
        <time>2015-09-24T10:22:37Z</time>
      </trkpt>
      <trkpt lat="42.24707" lon="0.0258">
        <ele>865</ele>
        <time>2015-09-24T10:22:39Z</time>
      </trkpt>
      <trkpt lat="42.24707" lon="0.02575">
        <ele>866</ele>
        <time>2015-09-24T10:22:41Z</time>
      </trkpt>
      <trkpt lat="42.24708" lon="0.0257">
        <ele>866.9</ele>
        <time>2015-09-24T10:22:43Z</time>
      </trkpt>
      <trkpt lat="42.24711" lon="0.02567">
        <ele>867.6</ele>
        <time>2015-09-24T10:22:45Z</time>
      </trkpt>
      <trkpt lat="42.24714" lon="0.02564">
        <ele>868.3</ele>
        <time>2015-09-24T10:22:47Z</time>
      </trkpt>
      <trkpt lat="42.24717" lon="0.02562">
        <ele>868.9</ele>
        <time>2015-09-24T10:22:49Z</time>
      </trkpt>
      <trkpt lat="42.2472" lon="0.02561">
        <ele>869.4</ele>
        <time>2015-09-24T10:22:51Z</time>
      </trkpt>
      <trkpt lat="42.24724" lon="0.02559">
        <ele>869.8</ele>
        <time>2015-09-24T10:22:53Z</time>
      </trkpt>
      <trkpt lat="42.24727" lon="0.02557">
        <ele>870.3</ele>
        <time>2015-09-24T10:22:55Z</time>
      </trkpt>
      <trkpt lat="42.2473" lon="0.02554">
        <ele>871</ele>
        <time>2015-09-24T10:22:57Z</time>
      </trkpt>
      <trkpt lat="42.24733" lon="0.02552">
        <ele>871.6</ele>
        <time>2015-09-24T10:22:59Z</time>
      </trkpt>
      <trkpt lat="42.24736" lon="0.02549">
        <ele>872.2</ele>
        <time>2015-09-24T10:23:01Z</time>
      </trkpt>
      <trkpt lat="42.24738" lon="0.02546">
        <ele>872.8</ele>
        <time>2015-09-24T10:23:03Z</time>
      </trkpt>
      <trkpt lat="42.2474" lon="0.02542">
        <ele>873.5</ele>
        <time>2015-09-24T10:23:05Z</time>
      </trkpt>
      <trkpt lat="42.24741" lon="0.02538">
        <ele>874</ele>
        <time>2015-09-24T10:23:07Z</time>
      </trkpt>
      <trkpt lat="42.24743" lon="0.02534">
        <ele>874.4</ele>
        <time>2015-09-24T10:23:09Z</time>
      </trkpt>
      <trkpt lat="42.24744" lon="0.02531">
        <ele>874.8</ele>
        <time>2015-09-24T10:23:11Z</time>
      </trkpt>
      <trkpt lat="42.24746" lon="0.02527">
        <ele>875.2</ele>
        <time>2015-09-24T10:23:14Z</time>
      </trkpt>
      <trkpt lat="42.24748" lon="0.02524">
        <ele>875.7</ele>
        <time>2015-09-24T10:23:17Z</time>
      </trkpt>
      <trkpt lat="42.24751" lon="0.0252">
        <ele>876.1</ele>
        <time>2015-09-24T10:23:20Z</time>
      </trkpt>
      <trkpt lat="42.24754" lon="0.02517">
        <ele>876.4</ele>
        <time>2015-09-24T10:23:23Z</time>
      </trkpt>
      <trkpt lat="42.24758" lon="0.02518">
        <ele>876.5</ele>
        <time>2015-09-24T10:23:26Z</time>
      </trkpt>
      <trkpt lat="42.24761" lon="0.02521">
        <ele>876.2</ele>
        <time>2015-09-24T10:23:29Z</time>
      </trkpt>
      <trkpt lat="42.24761" lon="0.02527">
        <ele>875.8</ele>
        <time>2015-09-24T10:23:32Z</time>
      </trkpt>
      <trkpt lat="42.24761" lon="0.0253">
        <ele>875.5</ele>
        <time>2015-09-24T10:23:34Z</time>
      </trkpt>
      <trkpt lat="42.24761" lon="0.02534">
        <ele>875.2</ele>
        <time>2015-09-24T10:23:36Z</time>
      </trkpt>
      <trkpt lat="42.24763" lon="0.02537">
        <ele>875</ele>
        <time>2015-09-24T10:23:38Z</time>
      </trkpt>
      <trkpt lat="42.24766" lon="0.02539">
        <ele>875</ele>
        <time>2015-09-24T10:23:40Z</time>
      </trkpt>
      <trkpt lat="42.24769" lon="0.02541">
        <ele>874.9</ele>
        <time>2015-09-24T10:23:42Z</time>
      </trkpt>
      <trkpt lat="42.24772" lon="0.02544">
        <ele>874.7</ele>
        <time>2015-09-24T10:23:44Z</time>
      </trkpt>
      <trkpt lat="42.24776" lon="0.02548">
        <ele>874.5</ele>
        <time>2015-09-24T10:23:46Z</time>
      </trkpt>
      <trkpt lat="42.24779" lon="0.02554">
        <ele>874</ele>
        <time>2015-09-24T10:23:48Z</time>
      </trkpt>
      <trkpt lat="42.2478" lon="0.02557">
        <ele>873.6</ele>
        <time>2015-09-24T10:23:49Z</time>
      </trkpt>
      <trkpt lat="42.24781" lon="0.02561">
        <ele>873.2</ele>
        <time>2015-09-24T10:23:50Z</time>
      </trkpt>
      <trkpt lat="42.24782" lon="0.02565">
        <ele>872.9</ele>
        <time>2015-09-24T10:23:51Z</time>
      </trkpt>
      <trkpt lat="42.24784" lon="0.02569">
        <ele>872.5</ele>
        <time>2015-09-24T10:23:52Z</time>
      </trkpt>
      <trkpt lat="42.24785" lon="0.02573">
        <ele>872.2</ele>
        <time>2015-09-24T10:23:53Z</time>
      </trkpt>
      <trkpt lat="42.24786" lon="0.02576">
        <ele>871.8</ele>
        <time>2015-09-24T10:23:54Z</time>
      </trkpt>
      <trkpt lat="42.24788" lon="0.0258">
        <ele>871.5</ele>
        <time>2015-09-24T10:23:55Z</time>
      </trkpt>
      <trkpt lat="42.2479" lon="0.02584">
        <ele>871.3</ele>
        <time>2015-09-24T10:23:56Z</time>
      </trkpt>
      <trkpt lat="42.24793" lon="0.02589">
        <ele>871.2</ele>
        <time>2015-09-24T10:23:57Z</time>
      </trkpt>
      <trkpt lat="42.24796" lon="0.02592">
        <ele>871.3</ele>
        <time>2015-09-24T10:23:58Z</time>
      </trkpt>
      <trkpt lat="42.248" lon="0.02596">
        <ele>871.4</ele>
        <time>2015-09-24T10:23:59Z</time>
      </trkpt>
      <trkpt lat="42.24803" lon="0.02599">
        <ele>871.7</ele>
        <time>2015-09-24T10:24:00Z</time>
      </trkpt>
      <trkpt lat="42.24807" lon="0.02602">
        <ele>871.9</ele>
        <time>2015-09-24T10:24:01Z</time>
      </trkpt>
      <trkpt lat="42.2481" lon="0.02605">
        <ele>872.2</ele>
        <time>2015-09-24T10:24:02Z</time>
      </trkpt>
      <trkpt lat="42.24814" lon="0.02609">
        <ele>872.5</ele>
        <time>2015-09-24T10:24:03Z</time>
      </trkpt>
      <trkpt lat="42.24818" lon="0.02612">
        <ele>872.9</ele>
        <time>2015-09-24T10:24:04Z</time>
      </trkpt>
      <trkpt lat="42.24821" lon="0.02615">
        <ele>873.2</ele>
        <time>2015-09-24T10:24:05Z</time>
      </trkpt>
      <trkpt lat="42.24825" lon="0.02618">
        <ele>873.6</ele>
        <time>2015-09-24T10:24:06Z</time>
      </trkpt>
      <trkpt lat="42.24828" lon="0.02621">
        <ele>873.9</ele>
        <time>2015-09-24T10:24:07Z</time>
      </trkpt>
      <trkpt lat="42.24832" lon="0.02625">
        <ele>874.3</ele>
        <time>2015-09-24T10:24:08Z</time>
      </trkpt>
      <trkpt lat="42.24836" lon="0.02628">
        <ele>874.5</ele>
        <time>2015-09-24T10:24:09Z</time>
      </trkpt>
      <trkpt lat="42.24841" lon="0.02632">
        <ele>874.7</ele>
        <time>2015-09-24T10:24:10Z</time>
      </trkpt>
      <trkpt lat="42.24845" lon="0.02636">
        <ele>874.9</ele>
        <time>2015-09-24T10:24:11Z</time>
      </trkpt>
      <trkpt lat="42.24849" lon="0.02639">
        <ele>875.1</ele>
        <time>2015-09-24T10:24:12Z</time>
      </trkpt>
      <trkpt lat="42.24853" lon="0.02642">
        <ele>875.3</ele>
        <time>2015-09-24T10:24:13Z</time>
      </trkpt>
      <trkpt lat="42.24856" lon="0.02645">
        <ele>875.6</ele>
        <time>2015-09-24T10:24:14Z</time>
      </trkpt>
      <trkpt lat="42.24861" lon="0.02647">
        <ele>876</ele>
        <time>2015-09-24T10:24:15Z</time>
      </trkpt>
      <trkpt lat="42.24864" lon="0.02649">
        <ele>876.4</ele>
        <time>2015-09-24T10:24:16Z</time>
      </trkpt>
      <trkpt lat="42.24868" lon="0.02649">
        <ele>877</ele>
        <time>2015-09-24T10:24:17Z</time>
      </trkpt>
      <trkpt lat="42.24873" lon="0.0265">
        <ele>877.8</ele>
        <time>2015-09-24T10:24:18Z</time>
      </trkpt>
      <trkpt lat="42.24877" lon="0.0265">
        <ele>878.4</ele>
        <time>2015-09-24T10:24:19Z</time>
      </trkpt>
      <trkpt lat="42.24882" lon="0.0265">
        <ele>878.9</ele>
        <time>2015-09-24T10:24:20Z</time>
      </trkpt>
      <trkpt lat="42.24886" lon="0.0265">
        <ele>879.4</ele>
        <time>2015-09-24T10:24:21Z</time>
      </trkpt>
      <trkpt lat="42.2489" lon="0.0265">
        <ele>879.8</ele>
        <time>2015-09-24T10:24:22Z</time>
      </trkpt>
      <trkpt lat="42.24894" lon="0.02651">
        <ele>880.2</ele>
        <time>2015-09-24T10:24:23Z</time>
      </trkpt>
      <trkpt lat="42.24898" lon="0.02651">
        <ele>880.7</ele>
        <time>2015-09-24T10:24:24Z</time>
      </trkpt>
      <trkpt lat="42.24902" lon="0.02651">
        <ele>881.2</ele>
        <time>2015-09-24T10:24:25Z</time>
      </trkpt>
      <trkpt lat="42.24906" lon="0.02651">
        <ele>881.7</ele>
        <time>2015-09-24T10:24:26Z</time>
      </trkpt>
      <trkpt lat="42.2491" lon="0.02651">
        <ele>882.2</ele>
        <time>2015-09-24T10:24:27Z</time>
      </trkpt>
      <trkpt lat="42.24914" lon="0.0265">
        <ele>882.8</ele>
        <time>2015-09-24T10:24:28Z</time>
      </trkpt>
      <trkpt lat="42.24918" lon="0.0265">
        <ele>883.4</ele>
        <time>2015-09-24T10:24:29Z</time>
      </trkpt>
      <trkpt lat="42.24922" lon="0.02649">
        <ele>883.9</ele>
        <time>2015-09-24T10:24:30Z</time>
      </trkpt>
      <trkpt lat="42.24926" lon="0.02649">
        <ele>884.5</ele>
        <time>2015-09-24T10:24:31Z</time>
      </trkpt>
      <trkpt lat="42.2493" lon="0.02649">
        <ele>885</ele>
        <time>2015-09-24T10:24:32Z</time>
      </trkpt>
      <trkpt lat="42.24934" lon="0.02648">
        <ele>885.6</ele>
        <time>2015-09-24T10:24:33Z</time>
      </trkpt>
      <trkpt lat="42.24938" lon="0.02648">
        <ele>886.1</ele>
        <time>2015-09-24T10:24:34Z</time>
      </trkpt>
      <trkpt lat="42.24942" lon="0.02648">
        <ele>886.7</ele>
        <time>2015-09-24T10:24:35Z</time>
      </trkpt>
      <trkpt lat="42.24946" lon="0.02647">
        <ele>887.2</ele>
        <time>2015-09-24T10:24:36Z</time>
      </trkpt>
      <trkpt lat="42.2495" lon="0.02647">
        <ele>887.8</ele>
        <time>2015-09-24T10:24:37Z</time>
      </trkpt>
      <trkpt lat="42.24954" lon="0.02646">
        <ele>888.3</ele>
        <time>2015-09-24T10:24:38Z</time>
      </trkpt>
      <trkpt lat="42.24958" lon="0.02646">
        <ele>888.8</ele>
        <time>2015-09-24T10:24:39Z</time>
      </trkpt>
      <trkpt lat="42.24962" lon="0.02646">
        <ele>889.2</ele>
        <time>2015-09-24T10:24:40Z</time>
      </trkpt>
      <trkpt lat="42.24966" lon="0.02647">
        <ele>889.5</ele>
        <time>2015-09-24T10:24:41Z</time>
      </trkpt>
      <trkpt lat="42.2497" lon="0.02648">
        <ele>889.7</ele>
        <time>2015-09-24T10:24:42Z</time>
      </trkpt>
      <trkpt lat="42.24974" lon="0.0265">
        <ele>889.8</ele>
        <time>2015-09-24T10:24:43Z</time>
      </trkpt>
      <trkpt lat="42.24978" lon="0.02653">
        <ele>889.7</ele>
        <time>2015-09-24T10:24:44Z</time>
      </trkpt>
      <trkpt lat="42.24982" lon="0.02656">
        <ele>889.4</ele>
        <time>2015-09-24T10:24:45Z</time>
      </trkpt>
      <trkpt lat="42.24985" lon="0.02659">
        <ele>889.1</ele>
        <time>2015-09-24T10:24:46Z</time>
      </trkpt>
      <trkpt lat="42.24988" lon="0.02663">
        <ele>888.8</ele>
        <time>2015-09-24T10:24:47Z</time>
      </trkpt>
      <trkpt lat="42.24992" lon="0.02667">
        <ele>888.4</ele>
        <time>2015-09-24T10:24:48Z</time>
      </trkpt>
      <trkpt lat="42.24995" lon="0.0267">
        <ele>888.1</ele>
        <time>2015-09-24T10:24:49Z</time>
      </trkpt>
      <trkpt lat="42.24998" lon="0.02673">
        <ele>887.8</ele>
        <time>2015-09-24T10:24:50Z</time>
      </trkpt>
      <trkpt lat="42.25001" lon="0.02677">
        <ele>887.5</ele>
        <time>2015-09-24T10:24:51Z</time>
      </trkpt>
      <trkpt lat="42.25005" lon="0.0268">
        <ele>887.2</ele>
        <time>2015-09-24T10:24:52Z</time>
      </trkpt>
      <trkpt lat="42.25008" lon="0.02684">
        <ele>887</ele>
        <time>2015-09-24T10:24:53Z</time>
      </trkpt>
      <trkpt lat="42.25011" lon="0.02686">
        <ele>886.8</ele>
        <time>2015-09-24T10:24:54Z</time>
      </trkpt>
      <trkpt lat="42.25015" lon="0.02689">
        <ele>886.7</ele>
        <time>2015-09-24T10:24:55Z</time>
      </trkpt>
      <trkpt lat="42.25019" lon="0.02692">
        <ele>886.6</ele>
        <time>2015-09-24T10:24:56Z</time>
      </trkpt>
      <trkpt lat="42.25023" lon="0.02694">
        <ele>886.6</ele>
        <time>2015-09-24T10:24:57Z</time>
      </trkpt>
      <trkpt lat="42.25027" lon="0.02695">
        <ele>886.7</ele>
        <time>2015-09-24T10:24:58Z</time>
      </trkpt>
      <trkpt lat="42.25031" lon="0.02697">
        <ele>886.8</ele>
        <time>2015-09-24T10:24:59Z</time>
      </trkpt>
      <trkpt lat="42.25035" lon="0.02699">
        <ele>887</ele>
        <time>2015-09-24T10:25:00Z</time>
      </trkpt>
      <trkpt lat="42.25039" lon="0.027">
        <ele>887.1</ele>
        <time>2015-09-24T10:25:01Z</time>
      </trkpt>
      <trkpt lat="42.25042" lon="0.02702">
        <ele>887.3</ele>
        <time>2015-09-24T10:25:02Z</time>
      </trkpt>
      <trkpt lat="42.25046" lon="0.02703">
        <ele>887.6</ele>
        <time>2015-09-24T10:25:03Z</time>
      </trkpt>
      <trkpt lat="42.2505" lon="0.02705">
        <ele>887.8</ele>
        <time>2015-09-24T10:25:04Z</time>
      </trkpt>
      <trkpt lat="42.25054" lon="0.02707">
        <ele>888.1</ele>
        <time>2015-09-24T10:25:05Z</time>
      </trkpt>
      <trkpt lat="42.25058" lon="0.02708">
        <ele>888.4</ele>
        <time>2015-09-24T10:25:06Z</time>
      </trkpt>
      <trkpt lat="42.25062" lon="0.02709">
        <ele>888.7</ele>
        <time>2015-09-24T10:25:07Z</time>
      </trkpt>
      <trkpt lat="42.25065" lon="0.0271">
        <ele>889.2</ele>
        <time>2015-09-24T10:25:08Z</time>
      </trkpt>
      <trkpt lat="42.25069" lon="0.02711">
        <ele>889.6</ele>
        <time>2015-09-24T10:25:09Z</time>
      </trkpt>
      <trkpt lat="42.25073" lon="0.02712">
        <ele>890</ele>
        <time>2015-09-24T10:25:10Z</time>
      </trkpt>
      <trkpt lat="42.25077" lon="0.02713">
        <ele>890.5</ele>
        <time>2015-09-24T10:25:11Z</time>
      </trkpt>
      <trkpt lat="42.25081" lon="0.02714">
        <ele>891</ele>
        <time>2015-09-24T10:25:12Z</time>
      </trkpt>
      <trkpt lat="42.25085" lon="0.02714">
        <ele>891.5</ele>
        <time>2015-09-24T10:25:13Z</time>
      </trkpt>
      <trkpt lat="42.25089" lon="0.02714">
        <ele>891.9</ele>
        <time>2015-09-24T10:25:14Z</time>
      </trkpt>
      <trkpt lat="42.25093" lon="0.02715">
        <ele>892.4</ele>
        <time>2015-09-24T10:25:15Z</time>
      </trkpt>
      <trkpt lat="42.25097" lon="0.02716">
        <ele>892.9</ele>
        <time>2015-09-24T10:25:16Z</time>
      </trkpt>
      <trkpt lat="42.25101" lon="0.02716">
        <ele>893.3</ele>
        <time>2015-09-24T10:25:17Z</time>
      </trkpt>
      <trkpt lat="42.25104" lon="0.02717">
        <ele>893.8</ele>
        <time>2015-09-24T10:25:18Z</time>
      </trkpt>
      <trkpt lat="42.25108" lon="0.02717">
        <ele>894.2</ele>
        <time>2015-09-24T10:25:19Z</time>
      </trkpt>
      <trkpt lat="42.25111" lon="0.02717">
        <ele>894.7</ele>
        <time>2015-09-24T10:25:20Z</time>
      </trkpt>
      <trkpt lat="42.25115" lon="0.02717">
        <ele>895.1</ele>
        <time>2015-09-24T10:25:21Z</time>
      </trkpt>
      <trkpt lat="42.25118" lon="0.02717">
        <ele>895.5</ele>
        <time>2015-09-24T10:25:22Z</time>
      </trkpt>
      <trkpt lat="42.25121" lon="0.02718">
        <ele>895.9</ele>
        <time>2015-09-24T10:25:23Z</time>
      </trkpt>
      <trkpt lat="42.25125" lon="0.02718">
        <ele>896.3</ele>
        <time>2015-09-24T10:25:24Z</time>
      </trkpt>
      <trkpt lat="42.25128" lon="0.02718">
        <ele>896.5</ele>
        <time>2015-09-24T10:25:25Z</time>
      </trkpt>
      <trkpt lat="42.25131" lon="0.02719">
        <ele>896.7</ele>
        <time>2015-09-24T10:25:26Z</time>
      </trkpt>
      <trkpt lat="42.25134" lon="0.02719">
        <ele>896.9</ele>
        <time>2015-09-24T10:25:27Z</time>
      </trkpt>
      <trkpt lat="42.25137" lon="0.0272">
        <ele>897</ele>
        <time>2015-09-24T10:25:28Z</time>
      </trkpt>
      <trkpt lat="42.2514" lon="0.0272">
        <ele>897.2</ele>
        <time>2015-09-24T10:25:29Z</time>
      </trkpt>
      <trkpt lat="42.25142" lon="0.02721">
        <ele>897.3</ele>
        <time>2015-09-24T10:25:30Z</time>
      </trkpt>
      <trkpt lat="42.25146" lon="0.02721">
        <ele>897.5</ele>
        <time>2015-09-24T10:25:31Z</time>
      </trkpt>
      <trkpt lat="42.25149" lon="0.02721">
        <ele>897.7</ele>
        <time>2015-09-24T10:25:32Z</time>
      </trkpt>
      <trkpt lat="42.25152" lon="0.02722">
        <ele>898</ele>
        <time>2015-09-24T10:25:33Z</time>
      </trkpt>
      <trkpt lat="42.25155" lon="0.02722">
        <ele>898.2</ele>
        <time>2015-09-24T10:25:34Z</time>
      </trkpt>
      <trkpt lat="42.25158" lon="0.02722">
        <ele>898.4</ele>
        <time>2015-09-24T10:25:35Z</time>
      </trkpt>
      <trkpt lat="42.25161" lon="0.02722">
        <ele>898.7</ele>
        <time>2015-09-24T10:25:36Z</time>
      </trkpt>
      <trkpt lat="42.25164" lon="0.02721">
        <ele>899</ele>
        <time>2015-09-24T10:25:37Z</time>
      </trkpt>
      <trkpt lat="42.25167" lon="0.02721">
        <ele>899.4</ele>
        <time>2015-09-24T10:25:38Z</time>
      </trkpt>
      <trkpt lat="42.2517" lon="0.0272">
        <ele>899.8</ele>
        <time>2015-09-24T10:25:39Z</time>
      </trkpt>
      <trkpt lat="42.25173" lon="0.02719">
        <ele>900.2</ele>
        <time>2015-09-24T10:25:40Z</time>
      </trkpt>
      <trkpt lat="42.25175" lon="0.02718">
        <ele>900.6</ele>
        <time>2015-09-24T10:25:41Z</time>
      </trkpt>
      <trkpt lat="42.25178" lon="0.02717">
        <ele>901</ele>
        <time>2015-09-24T10:25:42Z</time>
      </trkpt>
      <trkpt lat="42.25181" lon="0.02716">
        <ele>901.5</ele>
        <time>2015-09-24T10:25:43Z</time>
      </trkpt>
      <trkpt lat="42.25184" lon="0.02714">
        <ele>901.9</ele>
        <time>2015-09-24T10:25:44Z</time>
      </trkpt>
      <trkpt lat="42.25187" lon="0.02713">
        <ele>902.4</ele>
        <time>2015-09-24T10:25:45Z</time>
      </trkpt>
      <trkpt lat="42.2519" lon="0.02712">
        <ele>902.8</ele>
        <time>2015-09-24T10:25:46Z</time>
      </trkpt>
      <trkpt lat="42.25193" lon="0.0271">
        <ele>903.3</ele>
        <time>2015-09-24T10:25:47Z</time>
      </trkpt>
      <trkpt lat="42.25196" lon="0.02709">
        <ele>903.8</ele>
        <time>2015-09-24T10:25:48Z</time>
      </trkpt>
      <trkpt lat="42.25198" lon="0.02707">
        <ele>904.4</ele>
        <time>2015-09-24T10:25:49Z</time>
      </trkpt>
      <trkpt lat="42.25201" lon="0.02705">
        <ele>905</ele>
        <time>2015-09-24T10:25:50Z</time>
      </trkpt>
      <trkpt lat="42.25204" lon="0.02703">
        <ele>905.7</ele>
        <time>2015-09-24T10:25:51Z</time>
      </trkpt>
      <trkpt lat="42.25207" lon="0.02701">
        <ele>906.4</ele>
        <time>2015-09-24T10:25:52Z</time>
      </trkpt>
      <trkpt lat="42.25209" lon="0.02698">
        <ele>907</ele>
        <time>2015-09-24T10:25:53Z</time>
      </trkpt>
      <trkpt lat="42.25212" lon="0.02696">
        <ele>907.4</ele>
        <time>2015-09-24T10:25:54Z</time>
      </trkpt>
      <trkpt lat="42.25214" lon="0.02693">
        <ele>907.9</ele>
        <time>2015-09-24T10:25:55Z</time>
      </trkpt>
      <trkpt lat="42.25216" lon="0.02691">
        <ele>908.3</ele>
        <time>2015-09-24T10:25:56Z</time>
      </trkpt>
      <trkpt lat="42.25221" lon="0.02687">
        <ele>909</ele>
        <time>2015-09-24T10:25:58Z</time>
      </trkpt>
      <trkpt lat="42.25223" lon="0.02684">
        <ele>909.4</ele>
        <time>2015-09-24T10:25:59Z</time>
      </trkpt>
      <trkpt lat="42.25225" lon="0.02682">
        <ele>909.8</ele>
        <time>2015-09-24T10:26:00Z</time>
      </trkpt>
      <trkpt lat="42.25228" lon="0.0268">
        <ele>910.2</ele>
        <time>2015-09-24T10:26:01Z</time>
      </trkpt>
      <trkpt lat="42.2523" lon="0.02678">
        <ele>910.6</ele>
        <time>2015-09-24T10:26:02Z</time>
      </trkpt>
      <trkpt lat="42.25232" lon="0.02675">
        <ele>911</ele>
        <time>2015-09-24T10:26:03Z</time>
      </trkpt>
      <trkpt lat="42.25234" lon="0.02672">
        <ele>911.6</ele>
        <time>2015-09-24T10:26:04Z</time>
      </trkpt>
      <trkpt lat="42.25236" lon="0.02669">
        <ele>912.1</ele>
        <time>2015-09-24T10:26:05Z</time>
      </trkpt>
      <trkpt lat="42.2524" lon="0.02664">
        <ele>913.2</ele>
        <time>2015-09-24T10:26:07Z</time>
      </trkpt>
      <trkpt lat="42.25242" lon="0.02662">
        <ele>913.6</ele>
        <time>2015-09-24T10:26:08Z</time>
      </trkpt>
      <trkpt lat="42.25244" lon="0.0266">
        <ele>913.9</ele>
        <time>2015-09-24T10:26:09Z</time>
      </trkpt>
      <trkpt lat="42.25246" lon="0.02657">
        <ele>914.3</ele>
        <time>2015-09-24T10:26:10Z</time>
      </trkpt>
      <trkpt lat="42.25249" lon="0.02655">
        <ele>914.8</ele>
        <time>2015-09-24T10:26:11Z</time>
      </trkpt>
      <trkpt lat="42.2525" lon="0.02652">
        <ele>915.4</ele>
        <time>2015-09-24T10:26:12Z</time>
      </trkpt>
      <trkpt lat="42.25252" lon="0.02649">
        <ele>916</ele>
        <time>2015-09-24T10:26:13Z</time>
      </trkpt>
      <trkpt lat="42.25254" lon="0.02646">
        <ele>916.5</ele>
        <time>2015-09-24T10:26:14Z</time>
      </trkpt>
      <trkpt lat="42.25256" lon="0.02643">
        <ele>917</ele>
        <time>2015-09-24T10:26:15Z</time>
      </trkpt>
      <trkpt lat="42.25258" lon="0.02641">
        <ele>917.5</ele>
        <time>2015-09-24T10:26:16Z</time>
      </trkpt>
      <trkpt lat="42.2526" lon="0.02638">
        <ele>918</ele>
        <time>2015-09-24T10:26:17Z</time>
      </trkpt>
      <trkpt lat="42.25264" lon="0.02633">
        <ele>918.9</ele>
        <time>2015-09-24T10:26:19Z</time>
      </trkpt>
      <trkpt lat="42.25267" lon="0.02631">
        <ele>919.4</ele>
        <time>2015-09-24T10:26:20Z</time>
      </trkpt>
      <trkpt lat="42.25269" lon="0.02628">
        <ele>919.9</ele>
        <time>2015-09-24T10:26:21Z</time>
      </trkpt>
      <trkpt lat="42.25273" lon="0.02624">
        <ele>920.7</ele>
        <time>2015-09-24T10:26:23Z</time>
      </trkpt>
      <trkpt lat="42.25276" lon="0.02619">
        <ele>921.6</ele>
        <time>2015-09-24T10:26:25Z</time>
      </trkpt>
      <trkpt lat="42.2528" lon="0.02614">
        <ele>922.5</ele>
        <time>2015-09-24T10:26:27Z</time>
      </trkpt>
      <trkpt lat="42.25284" lon="0.02609">
        <ele>923.3</ele>
        <time>2015-09-24T10:26:29Z</time>
      </trkpt>
      <trkpt lat="42.25288" lon="0.02604">
        <ele>924.2</ele>
        <time>2015-09-24T10:26:31Z</time>
      </trkpt>
      <trkpt lat="42.25292" lon="0.026">
        <ele>925</ele>
        <time>2015-09-24T10:26:33Z</time>
      </trkpt>
      <trkpt lat="42.25297" lon="0.02596">
        <ele>925.2</ele>
        <time>2015-09-24T10:26:35Z</time>
      </trkpt>
      <trkpt lat="42.25301" lon="0.02593">
        <ele>925.4</ele>
        <time>2015-09-24T10:26:37Z</time>
      </trkpt>
      <trkpt lat="42.25305" lon="0.02589">
        <ele>925.5</ele>
        <time>2015-09-24T10:26:39Z</time>
      </trkpt>
      <trkpt lat="42.2531" lon="0.02585">
        <ele>925.6</ele>
        <time>2015-09-24T10:26:41Z</time>
      </trkpt>
      <trkpt lat="42.25315" lon="0.02582">
        <ele>925.5</ele>
        <time>2015-09-24T10:26:43Z</time>
      </trkpt>
      <trkpt lat="42.25319" lon="0.02579">
        <ele>925.4</ele>
        <time>2015-09-24T10:26:45Z</time>
      </trkpt>
      <trkpt lat="42.25324" lon="0.02576">
        <ele>925.4</ele>
        <time>2015-09-24T10:26:47Z</time>
      </trkpt>
      <trkpt lat="42.25329" lon="0.02573">
        <ele>925.2</ele>
        <time>2015-09-24T10:26:49Z</time>
      </trkpt>
      <trkpt lat="42.25334" lon="0.0257">
        <ele>925.1</ele>
        <time>2015-09-24T10:26:51Z</time>
      </trkpt>
      <trkpt lat="42.25338" lon="0.02568">
        <ele>925</ele>
        <time>2015-09-24T10:26:53Z</time>
      </trkpt>
      <trkpt lat="42.25343" lon="0.02564">
        <ele>925</ele>
        <time>2015-09-24T10:26:55Z</time>
      </trkpt>
      <trkpt lat="42.25346" lon="0.0256">
        <ele>925.2</ele>
        <time>2015-09-24T10:26:57Z</time>
      </trkpt>
      <trkpt lat="42.25351" lon="0.02555">
        <ele>925.4</ele>
        <time>2015-09-24T10:26:59Z</time>
      </trkpt>
      <trkpt lat="42.25355" lon="0.02552">
        <ele>925.4</ele>
        <time>2015-09-24T10:27:01Z</time>
      </trkpt>
      <trkpt lat="42.25359" lon="0.02547">
        <ele>925.5</ele>
        <time>2015-09-24T10:27:03Z</time>
      </trkpt>
      <trkpt lat="42.25363" lon="0.02542">
        <ele>925.9</ele>
        <time>2015-09-24T10:27:05Z</time>
      </trkpt>
      <trkpt lat="42.25366" lon="0.02536">
        <ele>925.8</ele>
        <time>2015-09-24T10:27:07Z</time>
      </trkpt>
      <trkpt lat="42.25368" lon="0.02533">
        <ele>925.8</ele>
        <time>2015-09-24T10:27:08Z</time>
      </trkpt>
      <trkpt lat="42.25369" lon="0.0253">
        <ele>925.9</ele>
        <time>2015-09-24T10:27:09Z</time>
      </trkpt>
      <trkpt lat="42.25371" lon="0.02526">
        <ele>926</ele>
        <time>2015-09-24T10:27:10Z</time>
      </trkpt>
      <trkpt lat="42.25372" lon="0.02523">
        <ele>926.1</ele>
        <time>2015-09-24T10:27:11Z</time>
      </trkpt>
      <trkpt lat="42.25373" lon="0.02519">
        <ele>926.2</ele>
        <time>2015-09-24T10:27:12Z</time>
      </trkpt>
      <trkpt lat="42.25375" lon="0.02515">
        <ele>926.2</ele>
        <time>2015-09-24T10:27:13Z</time>
      </trkpt>
      <trkpt lat="42.25376" lon="0.02512">
        <ele>926.5</ele>
        <time>2015-09-24T10:27:14Z</time>
      </trkpt>
      <trkpt lat="42.25378" lon="0.02507">
        <ele>926.8</ele>
        <time>2015-09-24T10:27:15Z</time>
      </trkpt>
      <trkpt lat="42.25379" lon="0.02503">
        <ele>927.1</ele>
        <time>2015-09-24T10:27:16Z</time>
      </trkpt>
      <trkpt lat="42.25381" lon="0.02499">
        <ele>927.4</ele>
        <time>2015-09-24T10:27:17Z</time>
      </trkpt>
      <trkpt lat="42.25383" lon="0.02495">
        <ele>927.7</ele>
        <time>2015-09-24T10:27:18Z</time>
      </trkpt>
      <trkpt lat="42.25385" lon="0.02491">
        <ele>927.9</ele>
        <time>2015-09-24T10:27:19Z</time>
      </trkpt>
      <trkpt lat="42.25389" lon="0.02488">
        <ele>928.2</ele>
        <time>2015-09-24T10:27:20Z</time>
      </trkpt>
      <trkpt lat="42.25392" lon="0.02486">
        <ele>928.3</ele>
        <time>2015-09-24T10:27:21Z</time>
      </trkpt>
      <trkpt lat="42.25396" lon="0.02484">
        <ele>928.4</ele>
        <time>2015-09-24T10:27:22Z</time>
      </trkpt>
      <trkpt lat="42.254" lon="0.02484">
        <ele>928.3</ele>
        <time>2015-09-24T10:27:23Z</time>
      </trkpt>
      <trkpt lat="42.25404" lon="0.02485">
        <ele>928.2</ele>
        <time>2015-09-24T10:27:24Z</time>
      </trkpt>
      <trkpt lat="42.25407" lon="0.02486">
        <ele>928</ele>
        <time>2015-09-24T10:27:25Z</time>
      </trkpt>
      <trkpt lat="42.25411" lon="0.02487">
        <ele>927.7</ele>
        <time>2015-09-24T10:27:26Z</time>
      </trkpt>
      <trkpt lat="42.25415" lon="0.02489">
        <ele>927.4</ele>
        <time>2015-09-24T10:27:27Z</time>
      </trkpt>
      <trkpt lat="42.25418" lon="0.02491">
        <ele>927</ele>
        <time>2015-09-24T10:27:28Z</time>
      </trkpt>
      <trkpt lat="42.25421" lon="0.02494">
        <ele>926.6</ele>
        <time>2015-09-24T10:27:29Z</time>
      </trkpt>
      <trkpt lat="42.25425" lon="0.02497">
        <ele>926.2</ele>
        <time>2015-09-24T10:27:30Z</time>
      </trkpt>
      <trkpt lat="42.25428" lon="0.02499">
        <ele>925.7</ele>
        <time>2015-09-24T10:27:31Z</time>
      </trkpt>
      <trkpt lat="42.25431" lon="0.02501">
        <ele>925.3</ele>
        <time>2015-09-24T10:27:32Z</time>
      </trkpt>
      <trkpt lat="42.25435" lon="0.02503">
        <ele>924.9</ele>
        <time>2015-09-24T10:27:33Z</time>
      </trkpt>
      <trkpt lat="42.25438" lon="0.02506">
        <ele>924.5</ele>
        <time>2015-09-24T10:27:34Z</time>
      </trkpt>
      <trkpt lat="42.25442" lon="0.02507">
        <ele>924</ele>
        <time>2015-09-24T10:27:35Z</time>
      </trkpt>
      <trkpt lat="42.25445" lon="0.02509">
        <ele>923.6</ele>
        <time>2015-09-24T10:27:36Z</time>
      </trkpt>
      <trkpt lat="42.25449" lon="0.02511">
        <ele>923.3</ele>
        <time>2015-09-24T10:27:37Z</time>
      </trkpt>
      <trkpt lat="42.25452" lon="0.02512">
        <ele>922.9</ele>
        <time>2015-09-24T10:27:38Z</time>
      </trkpt>
      <trkpt lat="42.25456" lon="0.02514">
        <ele>922.5</ele>
        <time>2015-09-24T10:27:39Z</time>
      </trkpt>
      <trkpt lat="42.2546" lon="0.02515">
        <ele>922.3</ele>
        <time>2015-09-24T10:27:40Z</time>
      </trkpt>
      <trkpt lat="42.25463" lon="0.02517">
        <ele>922.6</ele>
        <time>2015-09-24T10:27:41Z</time>
      </trkpt>
      <trkpt lat="42.25466" lon="0.02519">
        <ele>922.9</ele>
        <time>2015-09-24T10:27:42Z</time>
      </trkpt>
      <trkpt lat="42.2547" lon="0.0252">
        <ele>923.1</ele>
        <time>2015-09-24T10:27:43Z</time>
      </trkpt>
      <trkpt lat="42.25473" lon="0.02522">
        <ele>923.4</ele>
        <time>2015-09-24T10:27:44Z</time>
      </trkpt>
      <trkpt lat="42.25477" lon="0.02524">
        <ele>923.6</ele>
        <time>2015-09-24T10:27:45Z</time>
      </trkpt>
      <trkpt lat="42.2548" lon="0.02526">
        <ele>923.8</ele>
        <time>2015-09-24T10:27:46Z</time>
      </trkpt>
      <trkpt lat="42.25483" lon="0.02527">
        <ele>924</ele>
        <time>2015-09-24T10:27:47Z</time>
      </trkpt>
      <trkpt lat="42.25486" lon="0.02529">
        <ele>924.2</ele>
        <time>2015-09-24T10:27:48Z</time>
      </trkpt>
      <trkpt lat="42.2549" lon="0.0253">
        <ele>924.4</ele>
        <time>2015-09-24T10:27:49Z</time>
      </trkpt>
      <trkpt lat="42.25493" lon="0.02532">
        <ele>924.5</ele>
        <time>2015-09-24T10:27:50Z</time>
      </trkpt>
      <trkpt lat="42.25496" lon="0.02534">
        <ele>924.6</ele>
        <time>2015-09-24T10:27:51Z</time>
      </trkpt>
      <trkpt lat="42.25499" lon="0.02535">
        <ele>924.7</ele>
        <time>2015-09-24T10:27:52Z</time>
      </trkpt>
      <trkpt lat="42.25502" lon="0.02537">
        <ele>924.9</ele>
        <time>2015-09-24T10:27:53Z</time>
      </trkpt>
      <trkpt lat="42.25505" lon="0.02538">
        <ele>925</ele>
        <time>2015-09-24T10:27:54Z</time>
      </trkpt>
      <trkpt lat="42.25508" lon="0.0254">
        <ele>925</ele>
        <time>2015-09-24T10:27:55Z</time>
      </trkpt>
      <trkpt lat="42.25511" lon="0.02541">
        <ele>925.1</ele>
        <time>2015-09-24T10:27:56Z</time>
      </trkpt>
      <trkpt lat="42.25514" lon="0.02542">
        <ele>925.3</ele>
        <time>2015-09-24T10:27:57Z</time>
      </trkpt>
      <trkpt lat="42.25516" lon="0.02543">
        <ele>925.5</ele>
        <time>2015-09-24T10:27:58Z</time>
      </trkpt>
      <trkpt lat="42.25519" lon="0.02544">
        <ele>925.8</ele>
        <time>2015-09-24T10:27:59Z</time>
      </trkpt>
      <trkpt lat="42.25522" lon="0.02544">
        <ele>926.1</ele>
        <time>2015-09-24T10:28:00Z</time>
      </trkpt>
      <trkpt lat="42.25525" lon="0.02544">
        <ele>926.5</ele>
        <time>2015-09-24T10:28:01Z</time>
      </trkpt>
      <trkpt lat="42.25528" lon="0.02544">
        <ele>926.9</ele>
        <time>2015-09-24T10:28:02Z</time>
      </trkpt>
      <trkpt lat="42.25531" lon="0.02543">
        <ele>927.4</ele>
        <time>2015-09-24T10:28:03Z</time>
      </trkpt>
      <trkpt lat="42.25534" lon="0.02542">
        <ele>927.9</ele>
        <time>2015-09-24T10:28:04Z</time>
      </trkpt>
      <trkpt lat="42.25537" lon="0.02541">
        <ele>928.5</ele>
        <time>2015-09-24T10:28:05Z</time>
      </trkpt>
      <trkpt lat="42.2554" lon="0.0254">
        <ele>929.2</ele>
        <time>2015-09-24T10:28:06Z</time>
      </trkpt>
      <trkpt lat="42.25543" lon="0.02539">
        <ele>929.9</ele>
        <time>2015-09-24T10:28:07Z</time>
      </trkpt>
      <trkpt lat="42.25546" lon="0.02537">
        <ele>930.6</ele>
        <time>2015-09-24T10:28:08Z</time>
      </trkpt>
      <trkpt lat="42.25549" lon="0.02536">
        <ele>931.3</ele>
        <time>2015-09-24T10:28:09Z</time>
      </trkpt>
      <trkpt lat="42.25552" lon="0.02534">
        <ele>931.9</ele>
        <time>2015-09-24T10:28:10Z</time>
      </trkpt>
      <trkpt lat="42.25555" lon="0.02533">
        <ele>932.6</ele>
        <time>2015-09-24T10:28:11Z</time>
      </trkpt>
      <trkpt lat="42.25558" lon="0.02531">
        <ele>933.3</ele>
        <time>2015-09-24T10:28:12Z</time>
      </trkpt>
      <trkpt lat="42.25561" lon="0.0253">
        <ele>933.9</ele>
        <time>2015-09-24T10:28:13Z</time>
      </trkpt>
      <trkpt lat="42.25563" lon="0.02529">
        <ele>934.5</ele>
        <time>2015-09-24T10:28:14Z</time>
      </trkpt>
      <trkpt lat="42.25566" lon="0.02527">
        <ele>935.2</ele>
        <time>2015-09-24T10:28:15Z</time>
      </trkpt>
      <trkpt lat="42.25569" lon="0.02526">
        <ele>935.8</ele>
        <time>2015-09-24T10:28:16Z</time>
      </trkpt>
      <trkpt lat="42.25572" lon="0.02525">
        <ele>936.5</ele>
        <time>2015-09-24T10:28:17Z</time>
      </trkpt>
      <trkpt lat="42.25575" lon="0.02523">
        <ele>937.2</ele>
        <time>2015-09-24T10:28:18Z</time>
      </trkpt>
      <trkpt lat="42.25578" lon="0.02522">
        <ele>937.8</ele>
        <time>2015-09-24T10:28:19Z</time>
      </trkpt>
      <trkpt lat="42.2558" lon="0.02521">
        <ele>938.3</ele>
        <time>2015-09-24T10:28:20Z</time>
      </trkpt>
      <trkpt lat="42.25583" lon="0.02521">
        <ele>938.7</ele>
        <time>2015-09-24T10:28:21Z</time>
      </trkpt>
      <trkpt lat="42.25586" lon="0.0252">
        <ele>939.2</ele>
        <time>2015-09-24T10:28:22Z</time>
      </trkpt>
      <trkpt lat="42.25589" lon="0.02519">
        <ele>939.8</ele>
        <time>2015-09-24T10:28:23Z</time>
      </trkpt>
      <trkpt lat="42.25592" lon="0.02518">
        <ele>940.5</ele>
        <time>2015-09-24T10:28:24Z</time>
      </trkpt>
      <trkpt lat="42.25594" lon="0.02517">
        <ele>941.2</ele>
        <time>2015-09-24T10:28:25Z</time>
      </trkpt>
      <trkpt lat="42.25597" lon="0.02515">
        <ele>941.8</ele>
        <time>2015-09-24T10:28:26Z</time>
      </trkpt>
      <trkpt lat="42.256" lon="0.02515">
        <ele>942.4</ele>
        <time>2015-09-24T10:28:27Z</time>
      </trkpt>
      <trkpt lat="42.25603" lon="0.02515">
        <ele>942.7</ele>
        <time>2015-09-24T10:28:28Z</time>
      </trkpt>
      <trkpt lat="42.25605" lon="0.02515">
        <ele>942.9</ele>
        <time>2015-09-24T10:28:29Z</time>
      </trkpt>
      <trkpt lat="42.25608" lon="0.02516">
        <ele>942.9</ele>
        <time>2015-09-24T10:28:30Z</time>
      </trkpt>
      <trkpt lat="42.25611" lon="0.02518">
        <ele>942.6</ele>
        <time>2015-09-24T10:28:31Z</time>
      </trkpt>
      <trkpt lat="42.25613" lon="0.0252">
        <ele>942.1</ele>
        <time>2015-09-24T10:28:32Z</time>
      </trkpt>
      <trkpt lat="42.25615" lon="0.02523">
        <ele>941.3</ele>
        <time>2015-09-24T10:28:33Z</time>
      </trkpt>
      <trkpt lat="42.25617" lon="0.02527">
        <ele>940.3</ele>
        <time>2015-09-24T10:28:34Z</time>
      </trkpt>
      <trkpt lat="42.25617" lon="0.02531">
        <ele>939</ele>
        <time>2015-09-24T10:28:35Z</time>
      </trkpt>
      <trkpt lat="42.25618" lon="0.02535">
        <ele>937.7</ele>
        <time>2015-09-24T10:28:36Z</time>
      </trkpt>
      <trkpt lat="42.25618" lon="0.02539">
        <ele>936.4</ele>
        <time>2015-09-24T10:28:37Z</time>
      </trkpt>
      <trkpt lat="42.25617" lon="0.02542">
        <ele>935.3</ele>
        <time>2015-09-24T10:28:38Z</time>
      </trkpt>
      <trkpt lat="42.25615" lon="0.02546">
        <ele>935</ele>
        <time>2015-09-24T10:28:39Z</time>
      </trkpt>
      <trkpt lat="42.25613" lon="0.02549">
        <ele>934.7</ele>
        <time>2015-09-24T10:28:40Z</time>
      </trkpt>
      <trkpt lat="42.2561" lon="0.02552">
        <ele>934.3</ele>
        <time>2015-09-24T10:28:41Z</time>
      </trkpt>
      <trkpt lat="42.25607" lon="0.02554">
        <ele>933.9</ele>
        <time>2015-09-24T10:28:42Z</time>
      </trkpt>
      <trkpt lat="42.25604" lon="0.02557">
        <ele>933.4</ele>
        <time>2015-09-24T10:28:43Z</time>
      </trkpt>
      <trkpt lat="42.25601" lon="0.0256">
        <ele>933</ele>
        <time>2015-09-24T10:28:44Z</time>
      </trkpt>
      <trkpt lat="42.25598" lon="0.02562">
        <ele>932.5</ele>
        <time>2015-09-24T10:28:45Z</time>
      </trkpt>
      <trkpt lat="42.25595" lon="0.02564">
        <ele>932.1</ele>
        <time>2015-09-24T10:28:46Z</time>
      </trkpt>
      <trkpt lat="42.25592" lon="0.02567">
        <ele>931.6</ele>
        <time>2015-09-24T10:28:47Z</time>
      </trkpt>
      <trkpt lat="42.2559" lon="0.02569">
        <ele>931.2</ele>
        <time>2015-09-24T10:28:48Z</time>
      </trkpt>
      <trkpt lat="42.25588" lon="0.02571">
        <ele>930.8</ele>
        <time>2015-09-24T10:28:49Z</time>
      </trkpt>
      <trkpt lat="42.25584" lon="0.02576">
        <ele>929.9</ele>
        <time>2015-09-24T10:28:51Z</time>
      </trkpt>
      <trkpt lat="42.2558" lon="0.0258">
        <ele>929</ele>
        <time>2015-09-24T10:28:53Z</time>
      </trkpt>
      <trkpt lat="42.25576" lon="0.02585">
        <ele>928</ele>
        <time>2015-09-24T10:28:55Z</time>
      </trkpt>
      <trkpt lat="42.25572" lon="0.0259">
        <ele>927.1</ele>
        <time>2015-09-24T10:28:57Z</time>
      </trkpt>
      <trkpt lat="42.25568" lon="0.02595">
        <ele>926</ele>
        <time>2015-09-24T10:28:59Z</time>
      </trkpt>
      <trkpt lat="42.25565" lon="0.02601">
        <ele>925</ele>
        <time>2015-09-24T10:29:01Z</time>
      </trkpt>
      <trkpt lat="42.25562" lon="0.02606">
        <ele>923.9</ele>
        <time>2015-09-24T10:29:03Z</time>
      </trkpt>
      <trkpt lat="42.25559" lon="0.02612">
        <ele>922.8</ele>
        <time>2015-09-24T10:29:05Z</time>
      </trkpt>
      <trkpt lat="42.25557" lon="0.02618">
        <ele>921.7</ele>
        <time>2015-09-24T10:29:07Z</time>
      </trkpt>
      <trkpt lat="42.25555" lon="0.02624">
        <ele>920.7</ele>
        <time>2015-09-24T10:29:09Z</time>
      </trkpt>
      <trkpt lat="42.25552" lon="0.02629">
        <ele>920.6</ele>
        <time>2015-09-24T10:29:11Z</time>
      </trkpt>
      <trkpt lat="42.2555" lon="0.02635">
        <ele>920.8</ele>
        <time>2015-09-24T10:29:13Z</time>
      </trkpt>
      <trkpt lat="42.25548" lon="0.02641">
        <ele>921.1</ele>
        <time>2015-09-24T10:29:15Z</time>
      </trkpt>
      <trkpt lat="42.25546" lon="0.02646">
        <ele>921.4</ele>
        <time>2015-09-24T10:29:17Z</time>
      </trkpt>
      <trkpt lat="42.25545" lon="0.02652">
        <ele>921.9</ele>
        <time>2015-09-24T10:29:20Z</time>
      </trkpt>
      <trkpt lat="42.25544" lon="0.02657">
        <ele>922.2</ele>
        <time>2015-09-24T10:29:22Z</time>
      </trkpt>
      <trkpt lat="42.25542" lon="0.02662">
        <ele>922.4</ele>
        <time>2015-09-24T10:29:24Z</time>
      </trkpt>
      <trkpt lat="42.2554" lon="0.02667">
        <ele>922.9</ele>
        <time>2015-09-24T10:29:26Z</time>
      </trkpt>
      <trkpt lat="42.25538" lon="0.02673">
        <ele>923.4</ele>
        <time>2015-09-24T10:29:28Z</time>
      </trkpt>
      <trkpt lat="42.25537" lon="0.02679">
        <ele>924</ele>
        <time>2015-09-24T10:29:30Z</time>
      </trkpt>
      <trkpt lat="42.25536" lon="0.02686">
        <ele>924.7</ele>
        <time>2015-09-24T10:29:32Z</time>
      </trkpt>
      <trkpt lat="42.25535" lon="0.02693">
        <ele>925.4</ele>
        <time>2015-09-24T10:29:34Z</time>
      </trkpt>
      <trkpt lat="42.25535" lon="0.02699">
        <ele>926.1</ele>
        <time>2015-09-24T10:29:36Z</time>
      </trkpt>
      <trkpt lat="42.25535" lon="0.02706">
        <ele>926.9</ele>
        <time>2015-09-24T10:29:38Z</time>
      </trkpt>
      <trkpt lat="42.25535" lon="0.02712">
        <ele>927.6</ele>
        <time>2015-09-24T10:29:40Z</time>
      </trkpt>
      <trkpt lat="42.25535" lon="0.02719">
        <ele>928.2</ele>
        <time>2015-09-24T10:29:42Z</time>
      </trkpt>
      <trkpt lat="42.25535" lon="0.02726">
        <ele>928.8</ele>
        <time>2015-09-24T10:29:44Z</time>
      </trkpt>
      <trkpt lat="42.25535" lon="0.02733">
        <ele>929.4</ele>
        <time>2015-09-24T10:29:46Z</time>
      </trkpt>
      <trkpt lat="42.25537" lon="0.0274">
        <ele>930.1</ele>
        <time>2015-09-24T10:29:48Z</time>
      </trkpt>
      <trkpt lat="42.25538" lon="0.02746">
        <ele>930.9</ele>
        <time>2015-09-24T10:29:50Z</time>
      </trkpt>
      <trkpt lat="42.25539" lon="0.02753">
        <ele>931.6</ele>
        <time>2015-09-24T10:29:52Z</time>
      </trkpt>
      <trkpt lat="42.25541" lon="0.0276">
        <ele>932.2</ele>
        <time>2015-09-24T10:29:54Z</time>
      </trkpt>
      <trkpt lat="42.25542" lon="0.02767">
        <ele>932.9</ele>
        <time>2015-09-24T10:29:56Z</time>
      </trkpt>
      <trkpt lat="42.25544" lon="0.02773">
        <ele>933.8</ele>
        <time>2015-09-24T10:29:58Z</time>
      </trkpt>
      <trkpt lat="42.25545" lon="0.0278">
        <ele>934.8</ele>
        <time>2015-09-24T10:30:00Z</time>
      </trkpt>
      <trkpt lat="42.25547" lon="0.02786">
        <ele>935.7</ele>
        <time>2015-09-24T10:30:02Z</time>
      </trkpt>
      <trkpt lat="42.25549" lon="0.02793">
        <ele>936.5</ele>
        <time>2015-09-24T10:30:04Z</time>
      </trkpt>
      <trkpt lat="42.2555" lon="0.02799">
        <ele>937.2</ele>
        <time>2015-09-24T10:30:06Z</time>
      </trkpt>
      <trkpt lat="42.25552" lon="0.02806">
        <ele>937.9</ele>
        <time>2015-09-24T10:30:08Z</time>
      </trkpt>
      <trkpt lat="42.25553" lon="0.02813">
        <ele>938.6</ele>
        <time>2015-09-24T10:30:10Z</time>
      </trkpt>
      <trkpt lat="42.25554" lon="0.02816">
        <ele>939</ele>
        <time>2015-09-24T10:30:11Z</time>
      </trkpt>
      <trkpt lat="42.25555" lon="0.0282">
        <ele>939.3</ele>
        <time>2015-09-24T10:30:12Z</time>
      </trkpt>
      <trkpt lat="42.25555" lon="0.02823">
        <ele>939.7</ele>
        <time>2015-09-24T10:30:13Z</time>
      </trkpt>
      <trkpt lat="42.25556" lon="0.02828">
        <ele>940.1</ele>
        <time>2015-09-24T10:30:14Z</time>
      </trkpt>
      <trkpt lat="42.25557" lon="0.02832">
        <ele>940.5</ele>
        <time>2015-09-24T10:30:15Z</time>
      </trkpt>
      <trkpt lat="42.25558" lon="0.02836">
        <ele>940.9</ele>
        <time>2015-09-24T10:30:16Z</time>
      </trkpt>
      <trkpt lat="42.25559" lon="0.0284">
        <ele>941.3</ele>
        <time>2015-09-24T10:30:17Z</time>
      </trkpt>
      <trkpt lat="42.2556" lon="0.02844">
        <ele>941.7</ele>
        <time>2015-09-24T10:30:18Z</time>
      </trkpt>
      <trkpt lat="42.25561" lon="0.02848">
        <ele>942.1</ele>
        <time>2015-09-24T10:30:19Z</time>
      </trkpt>
      <trkpt lat="42.25562" lon="0.02852">
        <ele>942.5</ele>
        <time>2015-09-24T10:30:20Z</time>
      </trkpt>
      <trkpt lat="42.25563" lon="0.02857">
        <ele>942.9</ele>
        <time>2015-09-24T10:30:21Z</time>
      </trkpt>
      <trkpt lat="42.25564" lon="0.02861">
        <ele>943.2</ele>
        <time>2015-09-24T10:30:22Z</time>
      </trkpt>
      <trkpt lat="42.25566" lon="0.02865">
        <ele>943.6</ele>
        <time>2015-09-24T10:30:23Z</time>
      </trkpt>
      <trkpt lat="42.25567" lon="0.02869">
        <ele>944</ele>
        <time>2015-09-24T10:30:24Z</time>
      </trkpt>
      <trkpt lat="42.25568" lon="0.02873">
        <ele>944.3</ele>
        <time>2015-09-24T10:30:25Z</time>
      </trkpt>
      <trkpt lat="42.25569" lon="0.02877">
        <ele>944.6</ele>
        <time>2015-09-24T10:30:26Z</time>
      </trkpt>
      <trkpt lat="42.2557" lon="0.02881">
        <ele>944.7</ele>
        <time>2015-09-24T10:30:27Z</time>
      </trkpt>
      <trkpt lat="42.25571" lon="0.02885">
        <ele>944.8</ele>
        <time>2015-09-24T10:30:28Z</time>
      </trkpt>
      <trkpt lat="42.25573" lon="0.02889">
        <ele>945</ele>
        <time>2015-09-24T10:30:29Z</time>
      </trkpt>
      <trkpt lat="42.25575" lon="0.02892">
        <ele>945.1</ele>
        <time>2015-09-24T10:30:30Z</time>
      </trkpt>
      <trkpt lat="42.25577" lon="0.02896">
        <ele>945.3</ele>
        <time>2015-09-24T10:30:31Z</time>
      </trkpt>
      <trkpt lat="42.25579" lon="0.02899">
        <ele>945.4</ele>
        <time>2015-09-24T10:30:32Z</time>
      </trkpt>
      <trkpt lat="42.25581" lon="0.02902">
        <ele>945.6</ele>
        <time>2015-09-24T10:30:33Z</time>
      </trkpt>
      <trkpt lat="42.25583" lon="0.02905">
        <ele>945.7</ele>
        <time>2015-09-24T10:30:34Z</time>
      </trkpt>
      <trkpt lat="42.25585" lon="0.02908">
        <ele>945.9</ele>
        <time>2015-09-24T10:30:35Z</time>
      </trkpt>
      <trkpt lat="42.25588" lon="0.0291">
        <ele>946.1</ele>
        <time>2015-09-24T10:30:36Z</time>
      </trkpt>
      <trkpt lat="42.2559" lon="0.02913">
        <ele>946.2</ele>
        <time>2015-09-24T10:30:37Z</time>
      </trkpt>
      <trkpt lat="42.25593" lon="0.02915">
        <ele>946.4</ele>
        <time>2015-09-24T10:30:38Z</time>
      </trkpt>
      <trkpt lat="42.25595" lon="0.02917">
        <ele>946.5</ele>
        <time>2015-09-24T10:30:39Z</time>
      </trkpt>
      <trkpt lat="42.25598" lon="0.02919">
        <ele>946.6</ele>
        <time>2015-09-24T10:30:40Z</time>
      </trkpt>
      <trkpt lat="42.25601" lon="0.02921">
        <ele>946.8</ele>
        <time>2015-09-24T10:30:41Z</time>
      </trkpt>
      <trkpt lat="42.25603" lon="0.02923">
        <ele>946.9</ele>
        <time>2015-09-24T10:30:42Z</time>
      </trkpt>
      <trkpt lat="42.25606" lon="0.02924">
        <ele>947</ele>
        <time>2015-09-24T10:30:43Z</time>
      </trkpt>
      <trkpt lat="42.25609" lon="0.02926">
        <ele>947.2</ele>
        <time>2015-09-24T10:30:44Z</time>
      </trkpt>
      <trkpt lat="42.25612" lon="0.02926">
        <ele>947.3</ele>
        <time>2015-09-24T10:30:45Z</time>
      </trkpt>
      <trkpt lat="42.25615" lon="0.02927">
        <ele>947.5</ele>
        <time>2015-09-24T10:30:46Z</time>
      </trkpt>
      <trkpt lat="42.25618" lon="0.02927">
        <ele>947.7</ele>
        <time>2015-09-24T10:30:47Z</time>
      </trkpt>
      <trkpt lat="42.2562" lon="0.02927">
        <ele>947.9</ele>
        <time>2015-09-24T10:30:48Z</time>
      </trkpt>
      <trkpt lat="42.25625" lon="0.02925">
        <ele>948.4</ele>
        <time>2015-09-24T10:30:50Z</time>
      </trkpt>
      <trkpt lat="42.25628" lon="0.02923">
        <ele>948.7</ele>
        <time>2015-09-24T10:30:51Z</time>
      </trkpt>
      <trkpt lat="42.25632" lon="0.02918">
        <ele>949.4</ele>
        <time>2015-09-24T10:30:53Z</time>
      </trkpt>
      <trkpt lat="42.25636" lon="0.02914">
        <ele>950</ele>
        <time>2015-09-24T10:30:55Z</time>
      </trkpt>
      <trkpt lat="42.25639" lon="0.02909">
        <ele>950.6</ele>
        <time>2015-09-24T10:30:57Z</time>
      </trkpt>
      <trkpt lat="42.25642" lon="0.02904">
        <ele>951.3</ele>
        <time>2015-09-24T10:30:59Z</time>
      </trkpt>
      <trkpt lat="42.25646" lon="0.02899">
        <ele>951.9</ele>
        <time>2015-09-24T10:31:01Z</time>
      </trkpt>
      <trkpt lat="42.25649" lon="0.02894">
        <ele>952.5</ele>
        <time>2015-09-24T10:31:03Z</time>
      </trkpt>
      <trkpt lat="42.25652" lon="0.02889">
        <ele>953.2</ele>
        <time>2015-09-24T10:31:05Z</time>
      </trkpt>
      <trkpt lat="42.25655" lon="0.02884">
        <ele>953.8</ele>
        <time>2015-09-24T10:31:07Z</time>
      </trkpt>
      <trkpt lat="42.25658" lon="0.0288">
        <ele>954.4</ele>
        <time>2015-09-24T10:31:09Z</time>
      </trkpt>
      <trkpt lat="42.25661" lon="0.02876">
        <ele>955</ele>
        <time>2015-09-24T10:31:11Z</time>
      </trkpt>
      <trkpt lat="42.25665" lon="0.02872">
        <ele>955.4</ele>
        <time>2015-09-24T10:31:13Z</time>
      </trkpt>
      <trkpt lat="42.25668" lon="0.02867">
        <ele>955.9</ele>
        <time>2015-09-24T10:31:15Z</time>
      </trkpt>
      <trkpt lat="42.25671" lon="0.02863">
        <ele>956.3</ele>
        <time>2015-09-24T10:31:17Z</time>
      </trkpt>
      <trkpt lat="42.25674" lon="0.02859">
        <ele>956.8</ele>
        <time>2015-09-24T10:31:19Z</time>
      </trkpt>
      <trkpt lat="42.25677" lon="0.02855">
        <ele>957.3</ele>
        <time>2015-09-24T10:31:21Z</time>
      </trkpt>
      <trkpt lat="42.2568" lon="0.02851">
        <ele>957.8</ele>
        <time>2015-09-24T10:31:23Z</time>
      </trkpt>
      <trkpt lat="42.25684" lon="0.02847">
        <ele>958.3</ele>
        <time>2015-09-24T10:31:25Z</time>
      </trkpt>
      <trkpt lat="42.25687" lon="0.02843">
        <ele>958.9</ele>
        <time>2015-09-24T10:31:27Z</time>
      </trkpt>
      <trkpt lat="42.2569" lon="0.02839">
        <ele>959.5</ele>
        <time>2015-09-24T10:31:29Z</time>
      </trkpt>
      <trkpt lat="42.25693" lon="0.02835">
        <ele>960.1</ele>
        <time>2015-09-24T10:31:31Z</time>
      </trkpt>
      <trkpt lat="42.25695" lon="0.0283">
        <ele>960.7</ele>
        <time>2015-09-24T10:31:33Z</time>
      </trkpt>
      <trkpt lat="42.25698" lon="0.02825">
        <ele>961.3</ele>
        <time>2015-09-24T10:31:35Z</time>
      </trkpt>
      <trkpt lat="42.25701" lon="0.02821">
        <ele>962</ele>
        <time>2015-09-24T10:31:37Z</time>
      </trkpt>
      <trkpt lat="42.25704" lon="0.02817">
        <ele>962.7</ele>
        <time>2015-09-24T10:31:39Z</time>
      </trkpt>
      <trkpt lat="42.25708" lon="0.02813">
        <ele>963.4</ele>
        <time>2015-09-24T10:31:41Z</time>
      </trkpt>
      <trkpt lat="42.25711" lon="0.02809">
        <ele>963.9</ele>
        <time>2015-09-24T10:31:43Z</time>
      </trkpt>
      <trkpt lat="42.25715" lon="0.02805">
        <ele>964.3</ele>
        <time>2015-09-24T10:31:45Z</time>
      </trkpt>
      <trkpt lat="42.25718" lon="0.02802">
        <ele>964.8</ele>
        <time>2015-09-24T10:31:47Z</time>
      </trkpt>
      <trkpt lat="42.25721" lon="0.02798">
        <ele>965.3</ele>
        <time>2015-09-24T10:31:49Z</time>
      </trkpt>
      <trkpt lat="42.25724" lon="0.02793">
        <ele>965.8</ele>
        <time>2015-09-24T10:31:51Z</time>
      </trkpt>
      <trkpt lat="42.25727" lon="0.02789">
        <ele>966.1</ele>
        <time>2015-09-24T10:31:53Z</time>
      </trkpt>
      <trkpt lat="42.2573" lon="0.02785">
        <ele>966.2</ele>
        <time>2015-09-24T10:31:55Z</time>
      </trkpt>
      <trkpt lat="42.25733" lon="0.0278">
        <ele>966.4</ele>
        <time>2015-09-24T10:31:57Z</time>
      </trkpt>
      <trkpt lat="42.25736" lon="0.02776">
        <ele>966.6</ele>
        <time>2015-09-24T10:31:59Z</time>
      </trkpt>
      <trkpt lat="42.25738" lon="0.02772">
        <ele>966.9</ele>
        <time>2015-09-24T10:32:01Z</time>
      </trkpt>
      <trkpt lat="42.25741" lon="0.02767">
        <ele>967.1</ele>
        <time>2015-09-24T10:32:03Z</time>
      </trkpt>
      <trkpt lat="42.25744" lon="0.02763">
        <ele>967.5</ele>
        <time>2015-09-24T10:32:05Z</time>
      </trkpt>
      <trkpt lat="42.25747" lon="0.02759">
        <ele>967.8</ele>
        <time>2015-09-24T10:32:07Z</time>
      </trkpt>
      <trkpt lat="42.2575" lon="0.02754">
        <ele>968.2</ele>
        <time>2015-09-24T10:32:09Z</time>
      </trkpt>
      <trkpt lat="42.25753" lon="0.0275">
        <ele>968.6</ele>
        <time>2015-09-24T10:32:11Z</time>
      </trkpt>
      <trkpt lat="42.25756" lon="0.02747">
        <ele>969.1</ele>
        <time>2015-09-24T10:32:13Z</time>
      </trkpt>
      <trkpt lat="42.2576" lon="0.02743">
        <ele>969.6</ele>
        <time>2015-09-24T10:32:15Z</time>
      </trkpt>
      <trkpt lat="42.25763" lon="0.02739">
        <ele>970.1</ele>
        <time>2015-09-24T10:32:17Z</time>
      </trkpt>
      <trkpt lat="42.25766" lon="0.02734">
        <ele>970.7</ele>
        <time>2015-09-24T10:32:19Z</time>
      </trkpt>
      <trkpt lat="42.25769" lon="0.0273">
        <ele>971.2</ele>
        <time>2015-09-24T10:32:21Z</time>
      </trkpt>
      <trkpt lat="42.25772" lon="0.02725">
        <ele>971.8</ele>
        <time>2015-09-24T10:32:23Z</time>
      </trkpt>
      <trkpt lat="42.25775" lon="0.02721">
        <ele>972.5</ele>
        <time>2015-09-24T10:32:25Z</time>
      </trkpt>
      <trkpt lat="42.25778" lon="0.02717">
        <ele>973.2</ele>
        <time>2015-09-24T10:32:27Z</time>
      </trkpt>
      <trkpt lat="42.25781" lon="0.02713">
        <ele>973.9</ele>
        <time>2015-09-24T10:32:29Z</time>
      </trkpt>
      <trkpt lat="42.25784" lon="0.02709">
        <ele>974.7</ele>
        <time>2015-09-24T10:32:31Z</time>
      </trkpt>
      <trkpt lat="42.25787" lon="0.02704">
        <ele>974.8</ele>
        <time>2015-09-24T10:32:33Z</time>
      </trkpt>
      <trkpt lat="42.25789" lon="0.027">
        <ele>974.9</ele>
        <time>2015-09-24T10:32:35Z</time>
      </trkpt>
      <trkpt lat="42.25792" lon="0.02696">
        <ele>975</ele>
        <time>2015-09-24T10:32:37Z</time>
      </trkpt>
      <trkpt lat="42.25796" lon="0.02692">
        <ele>974.9</ele>
        <time>2015-09-24T10:32:39Z</time>
      </trkpt>
      <trkpt lat="42.25798" lon="0.02688">
        <ele>974.8</ele>
        <time>2015-09-24T10:32:41Z</time>
      </trkpt>
      <trkpt lat="42.258" lon="0.02683">
        <ele>974.5</ele>
        <time>2015-09-24T10:32:43Z</time>
      </trkpt>
      <trkpt lat="42.25802" lon="0.02677">
        <ele>974.3</ele>
        <time>2015-09-24T10:32:45Z</time>
      </trkpt>
      <trkpt lat="42.25804" lon="0.02672">
        <ele>974</ele>
        <time>2015-09-24T10:32:47Z</time>
      </trkpt>
      <trkpt lat="42.25805" lon="0.02666">
        <ele>973.9</ele>
        <time>2015-09-24T10:32:49Z</time>
      </trkpt>
      <trkpt lat="42.25808" lon="0.02661">
        <ele>973.8</ele>
        <time>2015-09-24T10:32:51Z</time>
      </trkpt>
      <trkpt lat="42.2581" lon="0.02656">
        <ele>973.7</ele>
        <time>2015-09-24T10:32:53Z</time>
      </trkpt>
      <trkpt lat="42.25812" lon="0.02651">
        <ele>973.7</ele>
        <time>2015-09-24T10:32:55Z</time>
      </trkpt>
      <trkpt lat="42.25814" lon="0.02645">
        <ele>973.6</ele>
        <time>2015-09-24T10:32:57Z</time>
      </trkpt>
      <trkpt lat="42.25816" lon="0.0264">
        <ele>973.6</ele>
        <time>2015-09-24T10:32:59Z</time>
      </trkpt>
      <trkpt lat="42.25818" lon="0.02635">
        <ele>973.6</ele>
        <time>2015-09-24T10:33:01Z</time>
      </trkpt>
      <trkpt lat="42.25819" lon="0.02629">
        <ele>973.5</ele>
        <time>2015-09-24T10:33:03Z</time>
      </trkpt>
      <trkpt lat="42.25821" lon="0.02624">
        <ele>973.5</ele>
        <time>2015-09-24T10:33:05Z</time>
      </trkpt>
      <trkpt lat="42.25823" lon="0.02619">
        <ele>973.5</ele>
        <time>2015-09-24T10:33:07Z</time>
      </trkpt>
      <trkpt lat="42.25825" lon="0.02614">
        <ele>973.5</ele>
        <time>2015-09-24T10:33:09Z</time>
      </trkpt>
      <trkpt lat="42.25827" lon="0.02608">
        <ele>973.4</ele>
        <time>2015-09-24T10:33:11Z</time>
      </trkpt>
      <trkpt lat="42.25829" lon="0.02603">
        <ele>973.5</ele>
        <time>2015-09-24T10:33:13Z</time>
      </trkpt>
      <trkpt lat="42.25831" lon="0.02598">
        <ele>973.6</ele>
        <time>2015-09-24T10:33:15Z</time>
      </trkpt>
      <trkpt lat="42.25833" lon="0.02593">
        <ele>973.7</ele>
        <time>2015-09-24T10:33:17Z</time>
      </trkpt>
      <trkpt lat="42.25835" lon="0.02588">
        <ele>973.8</ele>
        <time>2015-09-24T10:33:19Z</time>
      </trkpt>
      <trkpt lat="42.25837" lon="0.02583">
        <ele>974</ele>
        <time>2015-09-24T10:33:21Z</time>
      </trkpt>
      <trkpt lat="42.25839" lon="0.02578">
        <ele>974.3</ele>
        <time>2015-09-24T10:33:23Z</time>
      </trkpt>
      <trkpt lat="42.25842" lon="0.02574">
        <ele>974.7</ele>
        <time>2015-09-24T10:33:25Z</time>
      </trkpt>
      <trkpt lat="42.25846" lon="0.0257">
        <ele>975.4</ele>
        <time>2015-09-24T10:33:27Z</time>
      </trkpt>
      <trkpt lat="42.25851" lon="0.02567">
        <ele>976.5</ele>
        <time>2015-09-24T10:33:29Z</time>
      </trkpt>
      <trkpt lat="42.25854" lon="0.02566">
        <ele>977</ele>
        <time>2015-09-24T10:33:30Z</time>
      </trkpt>
      <trkpt lat="42.25856" lon="0.02565">
        <ele>977.7</ele>
        <time>2015-09-24T10:33:31Z</time>
      </trkpt>
      <trkpt lat="42.25859" lon="0.02565">
        <ele>978.3</ele>
        <time>2015-09-24T10:33:32Z</time>
      </trkpt>
      <trkpt lat="42.25862" lon="0.02565">
        <ele>979</ele>
        <time>2015-09-24T10:33:33Z</time>
      </trkpt>
      <trkpt lat="42.25865" lon="0.02564">
        <ele>979.7</ele>
        <time>2015-09-24T10:33:34Z</time>
      </trkpt>
      <trkpt lat="42.25868" lon="0.02564">
        <ele>980.4</ele>
        <time>2015-09-24T10:33:35Z</time>
      </trkpt>
      <trkpt lat="42.25871" lon="0.02563">
        <ele>981.1</ele>
        <time>2015-09-24T10:33:36Z</time>
      </trkpt>
      <trkpt lat="42.25874" lon="0.02562">
        <ele>981.8</ele>
        <time>2015-09-24T10:33:37Z</time>
      </trkpt>
      <trkpt lat="42.25877" lon="0.02561">
        <ele>982.1</ele>
        <time>2015-09-24T10:33:38Z</time>
      </trkpt>
      <trkpt lat="42.2588" lon="0.0256">
        <ele>982.3</ele>
        <time>2015-09-24T10:33:39Z</time>
      </trkpt>
      <trkpt lat="42.25883" lon="0.02558">
        <ele>982.6</ele>
        <time>2015-09-24T10:33:40Z</time>
      </trkpt>
      <trkpt lat="42.25886" lon="0.02557">
        <ele>982.8</ele>
        <time>2015-09-24T10:33:41Z</time>
      </trkpt>
      <trkpt lat="42.25889" lon="0.02555">
        <ele>983</ele>
        <time>2015-09-24T10:33:42Z</time>
      </trkpt>
      <trkpt lat="42.25892" lon="0.02553">
        <ele>983.2</ele>
        <time>2015-09-24T10:33:43Z</time>
      </trkpt>
      <trkpt lat="42.25894" lon="0.02551">
        <ele>983.5</ele>
        <time>2015-09-24T10:33:44Z</time>
      </trkpt>
      <trkpt lat="42.25897" lon="0.02549">
        <ele>983.7</ele>
        <time>2015-09-24T10:33:45Z</time>
      </trkpt>
      <trkpt lat="42.259" lon="0.02547">
        <ele>983.9</ele>
        <time>2015-09-24T10:33:46Z</time>
      </trkpt>
      <trkpt lat="42.25903" lon="0.02545">
        <ele>984.2</ele>
        <time>2015-09-24T10:33:47Z</time>
      </trkpt>
      <trkpt lat="42.25905" lon="0.02544">
        <ele>984.5</ele>
        <time>2015-09-24T10:33:48Z</time>
      </trkpt>
      <trkpt lat="42.25908" lon="0.02541">
        <ele>984.7</ele>
        <time>2015-09-24T10:33:49Z</time>
      </trkpt>
      <trkpt lat="42.2591" lon="0.0254">
        <ele>984.8</ele>
        <time>2015-09-24T10:33:50Z</time>
      </trkpt>
      <trkpt lat="42.25912" lon="0.02538">
        <ele>984.9</ele>
        <time>2015-09-24T10:33:51Z</time>
      </trkpt>
      <trkpt lat="42.25915" lon="0.02536">
        <ele>985</ele>
        <time>2015-09-24T10:33:52Z</time>
      </trkpt>
      <trkpt lat="42.25916" lon="0.02532">
        <ele>985</ele>
        <time>2015-09-24T10:33:54Z</time>
      </trkpt>
      <trkpt lat="42.25919" lon="0.02528">
        <ele>985</ele>
        <time>2015-09-24T10:33:56Z</time>
      </trkpt>
      <trkpt lat="42.25921" lon="0.02526">
        <ele>985.2</ele>
        <time>2015-09-24T10:33:58Z</time>
      </trkpt>
      <trkpt lat="42.25925" lon="0.02523">
        <ele>985.4</ele>
        <time>2015-09-24T10:34:00Z</time>
      </trkpt>
      <trkpt lat="42.25927" lon="0.0252">
        <ele>985.5</ele>
        <time>2015-09-24T10:34:02Z</time>
      </trkpt>
      <trkpt lat="42.25928" lon="0.02516">
        <ele>985.4</ele>
        <time>2015-09-24T10:34:05Z</time>
      </trkpt>
      <trkpt lat="42.25932" lon="0.02516">
        <ele>985.8</ele>
        <time>2015-09-24T10:34:08Z</time>
      </trkpt>
      <trkpt lat="42.25936" lon="0.02514">
        <ele>986</ele>
        <time>2015-09-24T10:34:10Z</time>
      </trkpt>
      <trkpt lat="42.25939" lon="0.02511">
        <ele>986.3</ele>
        <time>2015-09-24T10:34:12Z</time>
      </trkpt>
      <trkpt lat="42.25942" lon="0.02509">
        <ele>986.5</ele>
        <time>2015-09-24T10:34:14Z</time>
      </trkpt>
      <trkpt lat="42.25945" lon="0.02506">
        <ele>986.7</ele>
        <time>2015-09-24T10:34:16Z</time>
      </trkpt>
      <trkpt lat="42.25948" lon="0.02503">
        <ele>986.9</ele>
        <time>2015-09-24T10:34:18Z</time>
      </trkpt>
      <trkpt lat="42.2595" lon="0.025">
        <ele>987</ele>
        <time>2015-09-24T10:34:20Z</time>
      </trkpt>
      <trkpt lat="42.25952" lon="0.02498">
        <ele>987.3</ele>
        <time>2015-09-24T10:34:24Z</time>
      </trkpt>
      <trkpt lat="42.25955" lon="0.02498">
        <ele>987.6</ele>
        <time>2015-09-24T10:36:11Z</time>
      </trkpt>
      <trkpt lat="42.25957" lon="0.02501">
        <ele>987.8</ele>
        <time>2015-09-24T10:36:12Z</time>
      </trkpt>
      <trkpt lat="42.25958" lon="0.02506">
        <ele>988.1</ele>
        <time>2015-09-24T10:36:13Z</time>
      </trkpt>
      <trkpt lat="42.25959" lon="0.02511">
        <ele>988.3</ele>
        <time>2015-09-24T10:36:14Z</time>
      </trkpt>
      <trkpt lat="42.25961" lon="0.02516">
        <ele>988.4</ele>
        <time>2015-09-24T10:36:15Z</time>
      </trkpt>
      <trkpt lat="42.25963" lon="0.02521">
        <ele>988.6</ele>
        <time>2015-09-24T10:36:16Z</time>
      </trkpt>
      <trkpt lat="42.25966" lon="0.02526">
        <ele>988.7</ele>
        <time>2015-09-24T10:36:17Z</time>
      </trkpt>
      <trkpt lat="42.25969" lon="0.02531">
        <ele>988.7</ele>
        <time>2015-09-24T10:36:18Z</time>
      </trkpt>
      <trkpt lat="42.25972" lon="0.02535">
        <ele>988.8</ele>
        <time>2015-09-24T10:36:19Z</time>
      </trkpt>
      <trkpt lat="42.25978" lon="0.02541">
        <ele>988.8</ele>
        <time>2015-09-24T10:36:20Z</time>
      </trkpt>
      <trkpt lat="42.25982" lon="0.02546">
        <ele>988.4</ele>
        <time>2015-09-24T10:36:21Z</time>
      </trkpt>
      <trkpt lat="42.25983" lon="0.02551">
        <ele>987.9</ele>
        <time>2015-09-24T10:36:22Z</time>
      </trkpt>
      <trkpt lat="42.25985" lon="0.02556">
        <ele>987.4</ele>
        <time>2015-09-24T10:36:23Z</time>
      </trkpt>
      <trkpt lat="42.25986" lon="0.02561">
        <ele>987</ele>
        <time>2015-09-24T10:36:24Z</time>
      </trkpt>
      <trkpt lat="42.25988" lon="0.02565">
        <ele>986.7</ele>
        <time>2015-09-24T10:36:25Z</time>
      </trkpt>
      <trkpt lat="42.25989" lon="0.02569">
        <ele>986.3</ele>
        <time>2015-09-24T10:36:26Z</time>
      </trkpt>
      <trkpt lat="42.25991" lon="0.02575">
        <ele>985.9</ele>
        <time>2015-09-24T10:36:27Z</time>
      </trkpt>
      <trkpt lat="42.25992" lon="0.0258">
        <ele>985.4</ele>
        <time>2015-09-24T10:36:28Z</time>
      </trkpt>
      <trkpt lat="42.25994" lon="0.02585">
        <ele>985</ele>
        <time>2015-09-24T10:36:29Z</time>
      </trkpt>
      <trkpt lat="42.25995" lon="0.02589">
        <ele>984.6</ele>
        <time>2015-09-24T10:36:30Z</time>
      </trkpt>
      <trkpt lat="42.25996" lon="0.02594">
        <ele>984.2</ele>
        <time>2015-09-24T10:36:31Z</time>
      </trkpt>
      <trkpt lat="42.25999" lon="0.02599">
        <ele>983.7</ele>
        <time>2015-09-24T10:36:32Z</time>
      </trkpt>
      <trkpt lat="42.26001" lon="0.02604">
        <ele>983.3</ele>
        <time>2015-09-24T10:36:33Z</time>
      </trkpt>
      <trkpt lat="42.26005" lon="0.02609">
        <ele>982.8</ele>
        <time>2015-09-24T10:36:34Z</time>
      </trkpt>
      <trkpt lat="42.26008" lon="0.02613">
        <ele>982.4</ele>
        <time>2015-09-24T10:36:35Z</time>
      </trkpt>
      <trkpt lat="42.26011" lon="0.02617">
        <ele>982</ele>
        <time>2015-09-24T10:36:36Z</time>
      </trkpt>
      <trkpt lat="42.26014" lon="0.02621">
        <ele>981.7</ele>
        <time>2015-09-24T10:36:37Z</time>
      </trkpt>
      <trkpt lat="42.26017" lon="0.02624">
        <ele>981.4</ele>
        <time>2015-09-24T10:36:38Z</time>
      </trkpt>
      <trkpt lat="42.26021" lon="0.02629">
        <ele>980.9</ele>
        <time>2015-09-24T10:36:39Z</time>
      </trkpt>
      <trkpt lat="42.26024" lon="0.02635">
        <ele>980.2</ele>
        <time>2015-09-24T10:36:40Z</time>
      </trkpt>
      <trkpt lat="42.26027" lon="0.0264">
        <ele>979.6</ele>
        <time>2015-09-24T10:36:41Z</time>
      </trkpt>
      <trkpt lat="42.26029" lon="0.02646">
        <ele>979</ele>
        <time>2015-09-24T10:36:42Z</time>
      </trkpt>
      <trkpt lat="42.26032" lon="0.02653">
        <ele>978.2</ele>
        <time>2015-09-24T10:36:43Z</time>
      </trkpt>
      <trkpt lat="42.26035" lon="0.02659">
        <ele>977.5</ele>
        <time>2015-09-24T10:36:44Z</time>
      </trkpt>
      <trkpt lat="42.26036" lon="0.02664">
        <ele>977</ele>
        <time>2015-09-24T10:36:45Z</time>
      </trkpt>
      <trkpt lat="42.26038" lon="0.02667">
        <ele>976.6</ele>
        <time>2015-09-24T10:36:47Z</time>
      </trkpt>
      <trkpt lat="42.26041" lon="0.02666">
        <ele>976.6</ele>
        <time>2015-09-24T10:36:50Z</time>
      </trkpt>
      <trkpt lat="42.26043" lon="0.02665">
        <ele>976.7</ele>
        <time>2015-09-24T10:36:53Z</time>
      </trkpt>
      <trkpt lat="42.26047" lon="0.02664">
        <ele>976.8</ele>
        <time>2015-09-24T10:36:56Z</time>
      </trkpt>
      <trkpt lat="42.2605" lon="0.02663">
        <ele>976.9</ele>
        <time>2015-09-24T10:36:59Z</time>
      </trkpt>
      <trkpt lat="42.26052" lon="0.02663">
        <ele>976.9</ele>
        <time>2015-09-24T10:37:02Z</time>
      </trkpt>
      <trkpt lat="42.26056" lon="0.02663">
        <ele>976.9</ele>
        <time>2015-09-24T10:37:05Z</time>
      </trkpt>
      <trkpt lat="42.26061" lon="0.02666">
        <ele>976.6</ele>
        <time>2015-09-24T10:37:07Z</time>
      </trkpt>
      <trkpt lat="42.26065" lon="0.02669">
        <ele>976.2</ele>
        <time>2015-09-24T10:37:09Z</time>
      </trkpt>
      <trkpt lat="42.26068" lon="0.02671">
        <ele>976</ele>
        <time>2015-09-24T10:37:10Z</time>
      </trkpt>
      <trkpt lat="42.26071" lon="0.02674">
        <ele>975.7</ele>
        <time>2015-09-24T10:37:11Z</time>
      </trkpt>
      <trkpt lat="42.26074" lon="0.02676">
        <ele>975.4</ele>
        <time>2015-09-24T10:37:12Z</time>
      </trkpt>
      <trkpt lat="42.26077" lon="0.02679">
        <ele>975.1</ele>
        <time>2015-09-24T10:37:13Z</time>
      </trkpt>
      <trkpt lat="42.2608" lon="0.02681">
        <ele>974.8</ele>
        <time>2015-09-24T10:37:14Z</time>
      </trkpt>
      <trkpt lat="42.26083" lon="0.02683">
        <ele>974.5</ele>
        <time>2015-09-24T10:37:15Z</time>
      </trkpt>
      <trkpt lat="42.26086" lon="0.02685">
        <ele>974.3</ele>
        <time>2015-09-24T10:37:16Z</time>
      </trkpt>
      <trkpt lat="42.26089" lon="0.02687">
        <ele>974</ele>
        <time>2015-09-24T10:37:17Z</time>
      </trkpt>
      <trkpt lat="42.26092" lon="0.02689">
        <ele>973.8</ele>
        <time>2015-09-24T10:37:18Z</time>
      </trkpt>
      <trkpt lat="42.26096" lon="0.02691">
        <ele>973.5</ele>
        <time>2015-09-24T10:37:19Z</time>
      </trkpt>
      <trkpt lat="42.26099" lon="0.02692">
        <ele>973.3</ele>
        <time>2015-09-24T10:37:20Z</time>
      </trkpt>
      <trkpt lat="42.26103" lon="0.02694">
        <ele>973.1</ele>
        <time>2015-09-24T10:37:21Z</time>
      </trkpt>
      <trkpt lat="42.26106" lon="0.02695">
        <ele>972.9</ele>
        <time>2015-09-24T10:37:22Z</time>
      </trkpt>
      <trkpt lat="42.2611" lon="0.02697">
        <ele>972.6</ele>
        <time>2015-09-24T10:37:23Z</time>
      </trkpt>
      <trkpt lat="42.26114" lon="0.027">
        <ele>972.3</ele>
        <time>2015-09-24T10:37:24Z</time>
      </trkpt>
      <trkpt lat="42.26117" lon="0.02703">
        <ele>971.9</ele>
        <time>2015-09-24T10:37:25Z</time>
      </trkpt>
      <trkpt lat="42.26121" lon="0.02705">
        <ele>971.4</ele>
        <time>2015-09-24T10:37:26Z</time>
      </trkpt>
      <trkpt lat="42.26124" lon="0.02708">
        <ele>971</ele>
        <time>2015-09-24T10:37:27Z</time>
      </trkpt>
      <trkpt lat="42.26128" lon="0.02711">
        <ele>970.9</ele>
        <time>2015-09-24T10:37:28Z</time>
      </trkpt>
      <trkpt lat="42.26132" lon="0.02713">
        <ele>970.8</ele>
        <time>2015-09-24T10:37:29Z</time>
      </trkpt>
      <trkpt lat="42.26135" lon="0.02716">
        <ele>970.7</ele>
        <time>2015-09-24T10:37:30Z</time>
      </trkpt>
      <trkpt lat="42.26139" lon="0.02719">
        <ele>970.6</ele>
        <time>2015-09-24T10:37:31Z</time>
      </trkpt>
      <trkpt lat="42.26142" lon="0.02722">
        <ele>970.5</ele>
        <time>2015-09-24T10:37:32Z</time>
      </trkpt>
      <trkpt lat="42.26146" lon="0.02725">
        <ele>970.4</ele>
        <time>2015-09-24T10:37:33Z</time>
      </trkpt>
      <trkpt lat="42.26149" lon="0.02727">
        <ele>970.3</ele>
        <time>2015-09-24T10:37:34Z</time>
      </trkpt>
      <trkpt lat="42.26153" lon="0.0273">
        <ele>970.2</ele>
        <time>2015-09-24T10:37:35Z</time>
      </trkpt>
      <trkpt lat="42.26156" lon="0.02733">
        <ele>970.1</ele>
        <time>2015-09-24T10:37:36Z</time>
      </trkpt>
      <trkpt lat="42.2616" lon="0.02736">
        <ele>969.9</ele>
        <time>2015-09-24T10:37:37Z</time>
      </trkpt>
      <trkpt lat="42.26163" lon="0.02739">
        <ele>969.8</ele>
        <time>2015-09-24T10:37:38Z</time>
      </trkpt>
      <trkpt lat="42.26167" lon="0.02742">
        <ele>969.7</ele>
        <time>2015-09-24T10:37:39Z</time>
      </trkpt>
      <trkpt lat="42.26171" lon="0.02745">
        <ele>969.6</ele>
        <time>2015-09-24T10:37:40Z</time>
      </trkpt>
      <trkpt lat="42.26174" lon="0.02747">
        <ele>969.5</ele>
        <time>2015-09-24T10:37:41Z</time>
      </trkpt>
      <trkpt lat="42.26178" lon="0.0275">
        <ele>969.4</ele>
        <time>2015-09-24T10:37:42Z</time>
      </trkpt>
      <trkpt lat="42.26182" lon="0.02752">
        <ele>969.3</ele>
        <time>2015-09-24T10:37:43Z</time>
      </trkpt>
      <trkpt lat="42.26185" lon="0.02755">
        <ele>969.2</ele>
        <time>2015-09-24T10:37:44Z</time>
      </trkpt>
      <trkpt lat="42.26188" lon="0.02758">
        <ele>969.1</ele>
        <time>2015-09-24T10:37:45Z</time>
      </trkpt>
      <trkpt lat="42.26192" lon="0.0276">
        <ele>969</ele>
        <time>2015-09-24T10:37:46Z</time>
      </trkpt>
      <trkpt lat="42.26195" lon="0.02763">
        <ele>968.9</ele>
        <time>2015-09-24T10:37:47Z</time>
      </trkpt>
      <trkpt lat="42.26198" lon="0.02766">
        <ele>968.8</ele>
        <time>2015-09-24T10:37:48Z</time>
      </trkpt>
      <trkpt lat="42.26201" lon="0.02767">
        <ele>968.8</ele>
        <time>2015-09-24T10:37:49Z</time>
      </trkpt>
      <trkpt lat="42.26204" lon="0.02768">
        <ele>968.8</ele>
        <time>2015-09-24T10:37:50Z</time>
      </trkpt>
      <trkpt lat="42.26208" lon="0.02768">
        <ele>969</ele>
        <time>2015-09-24T10:37:51Z</time>
      </trkpt>
      <trkpt lat="42.26211" lon="0.02768">
        <ele>969</ele>
        <time>2015-09-24T10:37:52Z</time>
      </trkpt>
      <trkpt lat="42.26215" lon="0.02767">
        <ele>969.1</ele>
        <time>2015-09-24T10:37:53Z</time>
      </trkpt>
      <trkpt lat="42.26218" lon="0.02766">
        <ele>969.2</ele>
        <time>2015-09-24T10:37:54Z</time>
      </trkpt>
      <trkpt lat="42.26221" lon="0.02764">
        <ele>969.3</ele>
        <time>2015-09-24T10:37:55Z</time>
      </trkpt>
      <trkpt lat="42.26224" lon="0.02763">
        <ele>969.5</ele>
        <time>2015-09-24T10:37:56Z</time>
      </trkpt>
      <trkpt lat="42.26227" lon="0.02761">
        <ele>969.7</ele>
        <time>2015-09-24T10:37:57Z</time>
      </trkpt>
      <trkpt lat="42.26233" lon="0.0276">
        <ele>969.9</ele>
        <time>2015-09-24T10:37:59Z</time>
      </trkpt>
      <trkpt lat="42.26236" lon="0.02759">
        <ele>970</ele>
        <time>2015-09-24T10:38:00Z</time>
      </trkpt>
      <trkpt lat="42.26239" lon="0.02758">
        <ele>970.3</ele>
        <time>2015-09-24T10:38:01Z</time>
      </trkpt>
      <trkpt lat="42.26242" lon="0.02756">
        <ele>970.5</ele>
        <time>2015-09-24T10:38:02Z</time>
      </trkpt>
      <trkpt lat="42.26246" lon="0.02754">
        <ele>970.8</ele>
        <time>2015-09-24T10:38:03Z</time>
      </trkpt>
      <trkpt lat="42.26249" lon="0.02752">
        <ele>971.1</ele>
        <time>2015-09-24T10:38:04Z</time>
      </trkpt>
      <trkpt lat="42.26252" lon="0.02751">
        <ele>971.4</ele>
        <time>2015-09-24T10:38:05Z</time>
      </trkpt>
      <trkpt lat="42.26255" lon="0.02749">
        <ele>971.8</ele>
        <time>2015-09-24T10:38:06Z</time>
      </trkpt>
      <trkpt lat="42.26259" lon="0.02747">
        <ele>972.1</ele>
        <time>2015-09-24T10:38:07Z</time>
      </trkpt>
      <trkpt lat="42.26264" lon="0.02745">
        <ele>972.6</ele>
        <time>2015-09-24T10:38:08Z</time>
      </trkpt>
      <trkpt lat="42.26268" lon="0.02743">
        <ele>973.1</ele>
        <time>2015-09-24T10:38:09Z</time>
      </trkpt>
      <trkpt lat="42.26271" lon="0.02741">
        <ele>973.6</ele>
        <time>2015-09-24T10:38:10Z</time>
      </trkpt>
      <trkpt lat="42.26274" lon="0.02739">
        <ele>974</ele>
        <time>2015-09-24T10:38:11Z</time>
      </trkpt>
      <trkpt lat="42.26278" lon="0.02738">
        <ele>974.3</ele>
        <time>2015-09-24T10:38:12Z</time>
      </trkpt>
      <trkpt lat="42.26281" lon="0.02737">
        <ele>974.7</ele>
        <time>2015-09-24T10:38:13Z</time>
      </trkpt>
      <trkpt lat="42.26285" lon="0.02736">
        <ele>975.1</ele>
        <time>2015-09-24T10:38:14Z</time>
      </trkpt>
      <trkpt lat="42.26288" lon="0.02735">
        <ele>975.4</ele>
        <time>2015-09-24T10:38:15Z</time>
      </trkpt>
      <trkpt lat="42.26292" lon="0.02734">
        <ele>975.7</ele>
        <time>2015-09-24T10:38:16Z</time>
      </trkpt>
      <trkpt lat="42.26295" lon="0.02734">
        <ele>975.9</ele>
        <time>2015-09-24T10:38:17Z</time>
      </trkpt>
      <trkpt lat="42.26299" lon="0.02733">
        <ele>976.1</ele>
        <time>2015-09-24T10:38:18Z</time>
      </trkpt>
      <trkpt lat="42.26302" lon="0.02731">
        <ele>976.5</ele>
        <time>2015-09-24T10:38:19Z</time>
      </trkpt>
      <trkpt lat="42.26307" lon="0.02729">
        <ele>977</ele>
        <time>2015-09-24T10:38:20Z</time>
      </trkpt>
      <trkpt lat="42.26311" lon="0.02727">
        <ele>977.6</ele>
        <time>2015-09-24T10:38:21Z</time>
      </trkpt>
      <trkpt lat="42.26315" lon="0.02724">
        <ele>978.1</ele>
        <time>2015-09-24T10:38:22Z</time>
      </trkpt>
      <trkpt lat="42.26319" lon="0.02722">
        <ele>978.6</ele>
        <time>2015-09-24T10:38:23Z</time>
      </trkpt>
      <trkpt lat="42.26324" lon="0.0272">
        <ele>979</ele>
        <time>2015-09-24T10:38:24Z</time>
      </trkpt>
      <trkpt lat="42.26328" lon="0.0272">
        <ele>979.2</ele>
        <time>2015-09-24T10:38:25Z</time>
      </trkpt>
      <trkpt lat="42.26332" lon="0.0272">
        <ele>979.3</ele>
        <time>2015-09-24T10:38:26Z</time>
      </trkpt>
      <trkpt lat="42.26337" lon="0.02723">
        <ele>978.6</ele>
        <time>2015-09-24T10:38:27Z</time>
      </trkpt>
      <trkpt lat="42.26341" lon="0.02727">
        <ele>978</ele>
        <time>2015-09-24T10:38:28Z</time>
      </trkpt>
      <trkpt lat="42.26345" lon="0.0273">
        <ele>977.4</ele>
        <time>2015-09-24T10:38:29Z</time>
      </trkpt>
      <trkpt lat="42.26346" lon="0.02735">
        <ele>976.5</ele>
        <time>2015-09-24T10:38:30Z</time>
      </trkpt>
      <trkpt lat="42.26348" lon="0.0274">
        <ele>975.4</ele>
        <time>2015-09-24T10:38:31Z</time>
      </trkpt>
      <trkpt lat="42.26349" lon="0.02746">
        <ele>974.4</ele>
        <time>2015-09-24T10:38:32Z</time>
      </trkpt>
      <trkpt lat="42.26349" lon="0.02751">
        <ele>973.4</ele>
        <time>2015-09-24T10:38:33Z</time>
      </trkpt>
      <trkpt lat="42.26349" lon="0.02756">
        <ele>972.4</ele>
        <time>2015-09-24T10:38:34Z</time>
      </trkpt>
      <trkpt lat="42.26347" lon="0.0276">
        <ele>971.5</ele>
        <time>2015-09-24T10:38:35Z</time>
      </trkpt>
      <trkpt lat="42.26345" lon="0.02764">
        <ele>970.7</ele>
        <time>2015-09-24T10:38:36Z</time>
      </trkpt>
      <trkpt lat="42.26342" lon="0.02767">
        <ele>970</ele>
        <time>2015-09-24T10:38:37Z</time>
      </trkpt>
      <trkpt lat="42.26339" lon="0.0277">
        <ele>969.5</ele>
        <time>2015-09-24T10:38:38Z</time>
      </trkpt>
      <trkpt lat="42.26337" lon="0.02772">
        <ele>968.9</ele>
        <time>2015-09-24T10:38:39Z</time>
      </trkpt>
      <trkpt lat="42.26335" lon="0.02775">
        <ele>968.3</ele>
        <time>2015-09-24T10:38:40Z</time>
      </trkpt>
      <trkpt lat="42.26332" lon="0.02778">
        <ele>967.8</ele>
        <time>2015-09-24T10:38:41Z</time>
      </trkpt>
      <trkpt lat="42.26331" lon="0.0278">
        <ele>967.2</ele>
        <time>2015-09-24T10:38:42Z</time>
      </trkpt>
      <trkpt lat="42.26329" lon="0.02783">
        <ele>966.6</ele>
        <time>2015-09-24T10:38:43Z</time>
      </trkpt>
      <trkpt lat="42.26326" lon="0.02789">
        <ele>965.3</ele>
        <time>2015-09-24T10:38:45Z</time>
      </trkpt>
      <trkpt lat="42.26325" lon="0.02794">
        <ele>964.7</ele>
        <time>2015-09-24T10:38:47Z</time>
      </trkpt>
      <trkpt lat="42.26326" lon="0.02799">
        <ele>964.4</ele>
        <time>2015-09-24T10:38:49Z</time>
      </trkpt>
      <trkpt lat="42.26326" lon="0.02804">
        <ele>964.1</ele>
        <time>2015-09-24T10:38:51Z</time>
      </trkpt>
      <trkpt lat="42.26327" lon="0.02808">
        <ele>963.9</ele>
        <time>2015-09-24T10:38:53Z</time>
      </trkpt>
      <trkpt lat="42.26327" lon="0.02812">
        <ele>963.7</ele>
        <time>2015-09-24T10:38:56Z</time>
      </trkpt>
      <trkpt lat="42.26327" lon="0.02817">
        <ele>963.4</ele>
        <time>2015-09-24T10:39:00Z</time>
      </trkpt>
      <trkpt lat="42.26327" lon="0.02822">
        <ele>963.1</ele>
        <time>2015-09-24T10:39:03Z</time>
      </trkpt>
      <trkpt lat="42.26327" lon="0.02827">
        <ele>962.8</ele>
        <time>2015-09-24T10:39:06Z</time>
      </trkpt>
      <trkpt lat="42.26328" lon="0.02831">
        <ele>962.6</ele>
        <time>2015-09-24T10:39:08Z</time>
      </trkpt>
      <trkpt lat="42.26328" lon="0.02837">
        <ele>962.4</ele>
        <time>2015-09-24T10:39:10Z</time>
      </trkpt>
      <trkpt lat="42.26328" lon="0.02842">
        <ele>962.1</ele>
        <time>2015-09-24T10:39:12Z</time>
      </trkpt>
      <trkpt lat="42.26328" lon="0.02847">
        <ele>961.8</ele>
        <time>2015-09-24T10:39:14Z</time>
      </trkpt>
      <trkpt lat="42.26328" lon="0.02853">
        <ele>961.5</ele>
        <time>2015-09-24T10:39:16Z</time>
      </trkpt>
      <trkpt lat="42.26329" lon="0.02858">
        <ele>961.2</ele>
        <time>2015-09-24T10:39:18Z</time>
      </trkpt>
      <trkpt lat="42.26329" lon="0.02862">
        <ele>961.1</ele>
        <time>2015-09-24T10:39:20Z</time>
      </trkpt>
      <trkpt lat="42.2633" lon="0.02866">
        <ele>961</ele>
        <time>2015-09-24T10:39:23Z</time>
      </trkpt>
      <trkpt lat="42.26332" lon="0.02871">
        <ele>960.9</ele>
        <time>2015-09-24T10:39:26Z</time>
      </trkpt>
      <trkpt lat="42.26333" lon="0.02875">
        <ele>961</ele>
        <time>2015-09-24T10:39:28Z</time>
      </trkpt>
      <trkpt lat="42.26334" lon="0.02878">
        <ele>961</ele>
        <time>2015-09-24T10:39:30Z</time>
      </trkpt>
      <trkpt lat="42.26336" lon="0.02882">
        <ele>961</ele>
        <time>2015-09-24T10:39:32Z</time>
      </trkpt>
      <trkpt lat="42.26338" lon="0.02885">
        <ele>961.1</ele>
        <time>2015-09-24T10:39:34Z</time>
      </trkpt>
      <trkpt lat="42.2634" lon="0.02889">
        <ele>961.1</ele>
        <time>2015-09-24T10:39:36Z</time>
      </trkpt>
      <trkpt lat="42.26341" lon="0.02893">
        <ele>961.2</ele>
        <time>2015-09-24T10:39:38Z</time>
      </trkpt>
      <trkpt lat="42.26343" lon="0.02897">
        <ele>961.2</ele>
        <time>2015-09-24T10:39:40Z</time>
      </trkpt>
      <trkpt lat="42.26344" lon="0.02901">
        <ele>961.2</ele>
        <time>2015-09-24T10:39:42Z</time>
      </trkpt>
      <trkpt lat="42.26346" lon="0.02906">
        <ele>961.3</ele>
        <time>2015-09-24T10:39:44Z</time>
      </trkpt>
      <trkpt lat="42.26348" lon="0.0291">
        <ele>961.5</ele>
        <time>2015-09-24T10:39:46Z</time>
      </trkpt>
      <trkpt lat="42.2635" lon="0.02914">
        <ele>961.7</ele>
        <time>2015-09-24T10:39:48Z</time>
      </trkpt>
      <trkpt lat="42.26353" lon="0.02918">
        <ele>961.9</ele>
        <time>2015-09-24T10:39:50Z</time>
      </trkpt>
      <trkpt lat="42.26355" lon="0.02921">
        <ele>962.3</ele>
        <time>2015-09-24T10:39:52Z</time>
      </trkpt>
      <trkpt lat="42.26358" lon="0.02924">
        <ele>962.6</ele>
        <time>2015-09-24T10:39:54Z</time>
      </trkpt>
      <trkpt lat="42.2636" lon="0.02928">
        <ele>962.9</ele>
        <time>2015-09-24T10:39:56Z</time>
      </trkpt>
      <trkpt lat="42.26363" lon="0.02931">
        <ele>963.3</ele>
        <time>2015-09-24T10:39:58Z</time>
      </trkpt>
      <trkpt lat="42.26365" lon="0.02934">
        <ele>963.6</ele>
        <time>2015-09-24T10:40:00Z</time>
      </trkpt>
      <trkpt lat="42.26367" lon="0.02937">
        <ele>964</ele>
        <time>2015-09-24T10:40:02Z</time>
      </trkpt>
      <trkpt lat="42.2637" lon="0.0294">
        <ele>964.4</ele>
        <time>2015-09-24T10:40:04Z</time>
      </trkpt>
      <trkpt lat="42.26373" lon="0.02943">
        <ele>964.9</ele>
        <time>2015-09-24T10:40:06Z</time>
      </trkpt>
      <trkpt lat="42.26375" lon="0.02946">
        <ele>965.4</ele>
        <time>2015-09-24T10:40:08Z</time>
      </trkpt>
      <trkpt lat="42.26378" lon="0.02948">
        <ele>966.2</ele>
        <time>2015-09-24T10:40:10Z</time>
      </trkpt>
      <trkpt lat="42.26382" lon="0.0295">
        <ele>967</ele>
        <time>2015-09-24T10:40:12Z</time>
      </trkpt>
      <trkpt lat="42.26385" lon="0.02952">
        <ele>967.9</ele>
        <time>2015-09-24T10:40:14Z</time>
      </trkpt>
      <trkpt lat="42.26388" lon="0.02953">
        <ele>968.8</ele>
        <time>2015-09-24T10:40:16Z</time>
      </trkpt>
      <trkpt lat="42.26392" lon="0.02952">
        <ele>969.8</ele>
        <time>2015-09-24T10:40:18Z</time>
      </trkpt>
      <trkpt lat="42.26395" lon="0.02952">
        <ele>970.7</ele>
        <time>2015-09-24T10:40:20Z</time>
      </trkpt>
      <trkpt lat="42.26398" lon="0.02953">
        <ele>971.4</ele>
        <time>2015-09-24T10:40:22Z</time>
      </trkpt>
      <trkpt lat="42.264" lon="0.02955">
        <ele>972</ele>
        <time>2015-09-24T10:40:24Z</time>
      </trkpt>
      <trkpt lat="42.26403" lon="0.02957">
        <ele>972.6</ele>
        <time>2015-09-24T10:40:26Z</time>
      </trkpt>
      <trkpt lat="42.26406" lon="0.02959">
        <ele>973.4</ele>
        <time>2015-09-24T10:40:28Z</time>
      </trkpt>
      <trkpt lat="42.26409" lon="0.02961">
        <ele>973.9</ele>
        <time>2015-09-24T10:40:30Z</time>
      </trkpt>
      <trkpt lat="42.26412" lon="0.02964">
        <ele>974.5</ele>
        <time>2015-09-24T10:40:32Z</time>
      </trkpt>
      <trkpt lat="42.26416" lon="0.02967">
        <ele>975.1</ele>
        <time>2015-09-24T10:40:34Z</time>
      </trkpt>
      <trkpt lat="42.2642" lon="0.02971">
        <ele>975.7</ele>
        <time>2015-09-24T10:40:36Z</time>
      </trkpt>
      <trkpt lat="42.26423" lon="0.02975">
        <ele>976.1</ele>
        <time>2015-09-24T10:40:38Z</time>
      </trkpt>
      <trkpt lat="42.26426" lon="0.02981">
        <ele>976.1</ele>
        <time>2015-09-24T10:40:40Z</time>
      </trkpt>
      <trkpt lat="42.26428" lon="0.02986">
        <ele>976.2</ele>
        <time>2015-09-24T10:40:42Z</time>
      </trkpt>
      <trkpt lat="42.26431" lon="0.0299">
        <ele>976.4</ele>
        <time>2015-09-24T10:40:44Z</time>
      </trkpt>
      <trkpt lat="42.26434" lon="0.02995">
        <ele>976.5</ele>
        <time>2015-09-24T10:40:46Z</time>
      </trkpt>
      <trkpt lat="42.26436" lon="0.02999">
        <ele>976.8</ele>
        <time>2015-09-24T10:40:48Z</time>
      </trkpt>
      <trkpt lat="42.26439" lon="0.03003">
        <ele>976.9</ele>
        <time>2015-09-24T10:40:50Z</time>
      </trkpt>
      <trkpt lat="42.26441" lon="0.03008">
        <ele>976.9</ele>
        <time>2015-09-24T10:40:52Z</time>
      </trkpt>
      <trkpt lat="42.26443" lon="0.03012">
        <ele>977.1</ele>
        <time>2015-09-24T10:40:54Z</time>
      </trkpt>
      <trkpt lat="42.26446" lon="0.03016">
        <ele>977.4</ele>
        <time>2015-09-24T10:40:56Z</time>
      </trkpt>
      <trkpt lat="42.26448" lon="0.0302">
        <ele>977.6</ele>
        <time>2015-09-24T10:40:58Z</time>
      </trkpt>
      <trkpt lat="42.26451" lon="0.03025">
        <ele>977.7</ele>
        <time>2015-09-24T10:41:00Z</time>
      </trkpt>
      <trkpt lat="42.26453" lon="0.0303">
        <ele>977.7</ele>
        <time>2015-09-24T10:41:02Z</time>
      </trkpt>
      <trkpt lat="42.26455" lon="0.03034">
        <ele>977.9</ele>
        <time>2015-09-24T10:41:04Z</time>
      </trkpt>
      <trkpt lat="42.26457" lon="0.03038">
        <ele>978</ele>
        <time>2015-09-24T10:41:06Z</time>
      </trkpt>
      <trkpt lat="42.26459" lon="0.03042">
        <ele>978.2</ele>
        <time>2015-09-24T10:41:08Z</time>
      </trkpt>
      <trkpt lat="42.26461" lon="0.03046">
        <ele>978.5</ele>
        <time>2015-09-24T10:41:10Z</time>
      </trkpt>
      <trkpt lat="42.26464" lon="0.0305">
        <ele>978.7</ele>
        <time>2015-09-24T10:41:12Z</time>
      </trkpt>
      <trkpt lat="42.26466" lon="0.03054">
        <ele>978.9</ele>
        <time>2015-09-24T10:41:14Z</time>
      </trkpt>
      <trkpt lat="42.26468" lon="0.03059">
        <ele>979.1</ele>
        <time>2015-09-24T10:41:16Z</time>
      </trkpt>
      <trkpt lat="42.2647" lon="0.03063">
        <ele>979.2</ele>
        <time>2015-09-24T10:41:18Z</time>
      </trkpt>
      <trkpt lat="42.26472" lon="0.03067">
        <ele>979.3</ele>
        <time>2015-09-24T10:41:21Z</time>
      </trkpt>
      <trkpt lat="42.26473" lon="0.0307">
        <ele>979.6</ele>
        <time>2015-09-24T10:41:23Z</time>
      </trkpt>
      <trkpt lat="42.26475" lon="0.03073">
        <ele>979.7</ele>
        <time>2015-09-24T10:41:25Z</time>
      </trkpt>
      <trkpt lat="42.26477" lon="0.03077">
        <ele>979.9</ele>
        <time>2015-09-24T10:41:27Z</time>
      </trkpt>
      <trkpt lat="42.26479" lon="0.0308">
        <ele>980.1</ele>
        <time>2015-09-24T10:41:29Z</time>
      </trkpt>
      <trkpt lat="42.2648" lon="0.03084">
        <ele>980.3</ele>
        <time>2015-09-24T10:42:59Z</time>
      </trkpt>
      <trkpt lat="42.26482" lon="0.03086">
        <ele>980.6</ele>
        <time>2015-09-24T10:43:03Z</time>
      </trkpt>
      <trkpt lat="42.26484" lon="0.0309">
        <ele>980.9</ele>
        <time>2015-09-24T10:43:08Z</time>
      </trkpt>
      <trkpt lat="42.26486" lon="0.03095">
        <ele>981.1</ele>
        <time>2015-09-24T10:43:11Z</time>
      </trkpt>
      <trkpt lat="42.26488" lon="0.03099">
        <ele>981.3</ele>
        <time>2015-09-24T10:43:13Z</time>
      </trkpt>
      <trkpt lat="42.2649" lon="0.03103">
        <ele>981.5</ele>
        <time>2015-09-24T10:43:15Z</time>
      </trkpt>
      <trkpt lat="42.26492" lon="0.03108">
        <ele>981.7</ele>
        <time>2015-09-24T10:43:17Z</time>
      </trkpt>
      <trkpt lat="42.26494" lon="0.03112">
        <ele>981.9</ele>
        <time>2015-09-24T10:43:19Z</time>
      </trkpt>
      <trkpt lat="42.26496" lon="0.03117">
        <ele>982.1</ele>
        <time>2015-09-24T10:43:21Z</time>
      </trkpt>
      <trkpt lat="42.26499" lon="0.03121">
        <ele>982.4</ele>
        <time>2015-09-24T10:43:23Z</time>
      </trkpt>
      <trkpt lat="42.26501" lon="0.03126">
        <ele>982.7</ele>
        <time>2015-09-24T10:43:25Z</time>
      </trkpt>
      <trkpt lat="42.26503" lon="0.0313">
        <ele>983.1</ele>
        <time>2015-09-24T10:43:27Z</time>
      </trkpt>
      <trkpt lat="42.26505" lon="0.03135">
        <ele>983.3</ele>
        <time>2015-09-24T10:43:29Z</time>
      </trkpt>
      <trkpt lat="42.26507" lon="0.03139">
        <ele>983.7</ele>
        <time>2015-09-24T10:43:31Z</time>
      </trkpt>
      <trkpt lat="42.26509" lon="0.03143">
        <ele>984.4</ele>
        <time>2015-09-24T10:43:33Z</time>
      </trkpt>
      <trkpt lat="42.26512" lon="0.03147">
        <ele>984.9</ele>
        <time>2015-09-24T10:43:35Z</time>
      </trkpt>
      <trkpt lat="42.26514" lon="0.03151">
        <ele>985.4</ele>
        <time>2015-09-24T10:43:37Z</time>
      </trkpt>
      <trkpt lat="42.26516" lon="0.03156">
        <ele>985.7</ele>
        <time>2015-09-24T10:43:39Z</time>
      </trkpt>
      <trkpt lat="42.26518" lon="0.0316">
        <ele>986</ele>
        <time>2015-09-24T10:43:41Z</time>
      </trkpt>
      <trkpt lat="42.2652" lon="0.03167">
        <ele>986.2</ele>
        <time>2015-09-24T10:43:43Z</time>
      </trkpt>
      <trkpt lat="42.26521" lon="0.0317">
        <ele>986.3</ele>
        <time>2015-09-24T10:43:44Z</time>
      </trkpt>
      <trkpt lat="42.26523" lon="0.03173">
        <ele>986.6</ele>
        <time>2015-09-24T10:43:45Z</time>
      </trkpt>
      <trkpt lat="42.26525" lon="0.03176">
        <ele>986.9</ele>
        <time>2015-09-24T10:43:46Z</time>
      </trkpt>
      <trkpt lat="42.26526" lon="0.0318">
        <ele>987.2</ele>
        <time>2015-09-24T10:43:47Z</time>
      </trkpt>
      <trkpt lat="42.26528" lon="0.03183">
        <ele>987.6</ele>
        <time>2015-09-24T10:43:48Z</time>
      </trkpt>
      <trkpt lat="42.2653" lon="0.03186">
        <ele>987.9</ele>
        <time>2015-09-24T10:43:49Z</time>
      </trkpt>
      <trkpt lat="42.26532" lon="0.0319">
        <ele>988.2</ele>
        <time>2015-09-24T10:43:50Z</time>
      </trkpt>
      <trkpt lat="42.26534" lon="0.03193">
        <ele>988.6</ele>
        <time>2015-09-24T10:43:51Z</time>
      </trkpt>
      <trkpt lat="42.26536" lon="0.03196">
        <ele>989</ele>
        <time>2015-09-24T10:43:52Z</time>
      </trkpt>
      <trkpt lat="42.26538" lon="0.03198">
        <ele>989.5</ele>
        <time>2015-09-24T10:43:53Z</time>
      </trkpt>
      <trkpt lat="42.26542" lon="0.03203">
        <ele>990.4</ele>
        <time>2015-09-24T10:43:55Z</time>
      </trkpt>
      <trkpt lat="42.26546" lon="0.03206">
        <ele>990.7</ele>
        <time>2015-09-24T10:43:57Z</time>
      </trkpt>
      <trkpt lat="42.26549" lon="0.03209">
        <ele>990.9</ele>
        <time>2015-09-24T10:44:21Z</time>
      </trkpt>
      <trkpt lat="42.26552" lon="0.03214">
        <ele>991.1</ele>
        <time>2015-09-24T10:44:23Z</time>
      </trkpt>
      <trkpt lat="42.26555" lon="0.03216">
        <ele>991.2</ele>
        <time>2015-09-24T10:44:24Z</time>
      </trkpt>
      <trkpt lat="42.26559" lon="0.03218">
        <ele>991.6</ele>
        <time>2015-09-24T10:44:26Z</time>
      </trkpt>
      <trkpt lat="42.26562" lon="0.03218">
        <ele>992</ele>
        <time>2015-09-24T10:44:41Z</time>
      </trkpt>
      <trkpt lat="42.26567" lon="0.0322">
        <ele>992.5</ele>
        <time>2015-09-24T10:44:43Z</time>
      </trkpt>
      <trkpt lat="42.26571" lon="0.03221">
        <ele>992.9</ele>
        <time>2015-09-24T10:44:44Z</time>
      </trkpt>
      <trkpt lat="42.26574" lon="0.0322">
        <ele>993.3</ele>
        <time>2015-09-24T10:44:45Z</time>
      </trkpt>
      <trkpt lat="42.26577" lon="0.0322">
        <ele>993.7</ele>
        <time>2015-09-24T10:44:46Z</time>
      </trkpt>
      <trkpt lat="42.2658" lon="0.03219">
        <ele>994.1</ele>
        <time>2015-09-24T10:44:47Z</time>
      </trkpt>
      <trkpt lat="42.26583" lon="0.03218">
        <ele>994.6</ele>
        <time>2015-09-24T10:44:48Z</time>
      </trkpt>
      <trkpt lat="42.26586" lon="0.03217">
        <ele>995.1</ele>
        <time>2015-09-24T10:44:49Z</time>
      </trkpt>
      <trkpt lat="42.26589" lon="0.03216">
        <ele>995.6</ele>
        <time>2015-09-24T10:44:50Z</time>
      </trkpt>
      <trkpt lat="42.26592" lon="0.03214">
        <ele>996.1</ele>
        <time>2015-09-24T10:44:51Z</time>
      </trkpt>
      <trkpt lat="42.26595" lon="0.03213">
        <ele>996.6</ele>
        <time>2015-09-24T10:44:52Z</time>
      </trkpt>
      <trkpt lat="42.26598" lon="0.03211">
        <ele>997.2</ele>
        <time>2015-09-24T10:44:53Z</time>
      </trkpt>
      <trkpt lat="42.26601" lon="0.03209">
        <ele>997.8</ele>
        <time>2015-09-24T10:44:54Z</time>
      </trkpt>
      <trkpt lat="42.26604" lon="0.03206">
        <ele>998.5</ele>
        <time>2015-09-24T10:44:55Z</time>
      </trkpt>
      <trkpt lat="42.26607" lon="0.03204">
        <ele>999.2</ele>
        <time>2015-09-24T10:44:56Z</time>
      </trkpt>
      <trkpt lat="42.26609" lon="0.03201">
        <ele>999.9</ele>
        <time>2015-09-24T10:44:57Z</time>
      </trkpt>
      <trkpt lat="42.26612" lon="0.03199">
        <ele>1000.6</ele>
        <time>2015-09-24T10:44:58Z</time>
      </trkpt>
      <trkpt lat="42.26615" lon="0.03197">
        <ele>1001.3</ele>
        <time>2015-09-24T10:44:59Z</time>
      </trkpt>
      <trkpt lat="42.26618" lon="0.03196">
        <ele>1001.8</ele>
        <time>2015-09-24T10:45:00Z</time>
      </trkpt>
      <trkpt lat="42.26621" lon="0.03195">
        <ele>1002.4</ele>
        <time>2015-09-24T10:45:01Z</time>
      </trkpt>
      <trkpt lat="42.26626" lon="0.03195">
        <ele>1002.9</ele>
        <time>2015-09-24T10:45:09Z</time>
      </trkpt>
      <trkpt lat="42.2663" lon="0.03194">
        <ele>1003.2</ele>
        <time>2015-09-24T10:45:10Z</time>
      </trkpt>
      <trkpt lat="42.26634" lon="0.03193">
        <ele>1003.6</ele>
        <time>2015-09-24T10:45:11Z</time>
      </trkpt>
      <trkpt lat="42.26639" lon="0.03191">
        <ele>1004</ele>
        <time>2015-09-24T10:45:12Z</time>
      </trkpt>
      <trkpt lat="42.26643" lon="0.0319">
        <ele>1004.4</ele>
        <time>2015-09-24T10:45:13Z</time>
      </trkpt>
      <trkpt lat="42.26648" lon="0.0319">
        <ele>1004.6</ele>
        <time>2015-09-24T10:45:14Z</time>
      </trkpt>
      <trkpt lat="42.26652" lon="0.03194">
        <ele>1004.1</ele>
        <time>2015-09-24T10:45:15Z</time>
      </trkpt>
      <trkpt lat="42.26654" lon="0.032">
        <ele>1003.3</ele>
        <time>2015-09-24T10:45:17Z</time>
      </trkpt>
      <trkpt lat="42.26656" lon="0.03204">
        <ele>1002.7</ele>
        <time>2015-09-24T10:45:21Z</time>
      </trkpt>
      <trkpt lat="42.26657" lon="0.03208">
        <ele>1002.3</ele>
        <time>2015-09-24T10:45:23Z</time>
      </trkpt>
      <trkpt lat="42.26659" lon="0.03213">
        <ele>1001.6</ele>
        <time>2015-09-24T10:45:25Z</time>
      </trkpt>
      <trkpt lat="42.26662" lon="0.03218">
        <ele>1000.9</ele>
        <time>2015-09-24T10:45:27Z</time>
      </trkpt>
      <trkpt lat="42.26664" lon="0.03222">
        <ele>1000.4</ele>
        <time>2015-09-24T10:45:28Z</time>
      </trkpt>
      <trkpt lat="42.26667" lon="0.03226">
        <ele>999.9</ele>
        <time>2015-09-24T10:45:29Z</time>
      </trkpt>
      <trkpt lat="42.26669" lon="0.03231">
        <ele>999.3</ele>
        <time>2015-09-24T10:45:30Z</time>
      </trkpt>
      <trkpt lat="42.26671" lon="0.03236">
        <ele>998.7</ele>
        <time>2015-09-24T10:45:31Z</time>
      </trkpt>
      <trkpt lat="42.26674" lon="0.03241">
        <ele>998</ele>
        <time>2015-09-24T10:45:32Z</time>
      </trkpt>
      <trkpt lat="42.26677" lon="0.03246">
        <ele>997.3</ele>
        <time>2015-09-24T10:45:33Z</time>
      </trkpt>
      <trkpt lat="42.26679" lon="0.03251">
        <ele>996.7</ele>
        <time>2015-09-24T10:45:34Z</time>
      </trkpt>
      <trkpt lat="42.26681" lon="0.03255">
        <ele>996.1</ele>
        <time>2015-09-24T10:45:35Z</time>
      </trkpt>
      <trkpt lat="42.26683" lon="0.03259">
        <ele>995.6</ele>
        <time>2015-09-24T10:45:36Z</time>
      </trkpt>
      <trkpt lat="42.26685" lon="0.03262">
        <ele>995.2</ele>
        <time>2015-09-24T10:45:37Z</time>
      </trkpt>
      <trkpt lat="42.26687" lon="0.03266">
        <ele>994.6</ele>
        <time>2015-09-24T10:45:39Z</time>
      </trkpt>
      <trkpt lat="42.26691" lon="0.03272">
        <ele>993.7</ele>
        <time>2015-09-24T10:45:41Z</time>
      </trkpt>
      <trkpt lat="42.26693" lon="0.03275">
        <ele>993.3</ele>
        <time>2015-09-24T10:45:42Z</time>
      </trkpt>
      <trkpt lat="42.26695" lon="0.03278">
        <ele>992.9</ele>
        <time>2015-09-24T10:45:43Z</time>
      </trkpt>
      <trkpt lat="42.26696" lon="0.03281">
        <ele>992.5</ele>
        <time>2015-09-24T10:45:44Z</time>
      </trkpt>
      <trkpt lat="42.26698" lon="0.03284">
        <ele>992.1</ele>
        <time>2015-09-24T10:45:45Z</time>
      </trkpt>
      <trkpt lat="42.267" lon="0.03287">
        <ele>991.6</ele>
        <time>2015-09-24T10:45:46Z</time>
      </trkpt>
      <trkpt lat="42.26702" lon="0.03291">
        <ele>991.1</ele>
        <time>2015-09-24T10:45:47Z</time>
      </trkpt>
      <trkpt lat="42.26703" lon="0.03294">
        <ele>990.4</ele>
        <time>2015-09-24T10:45:48Z</time>
      </trkpt>
      <trkpt lat="42.26706" lon="0.03298">
        <ele>989.6</ele>
        <time>2015-09-24T10:45:49Z</time>
      </trkpt>
      <trkpt lat="42.26708" lon="0.03302">
        <ele>988.8</ele>
        <time>2015-09-24T10:45:50Z</time>
      </trkpt>
      <trkpt lat="42.26711" lon="0.03307">
        <ele>988.4</ele>
        <time>2015-09-24T10:45:51Z</time>
      </trkpt>
      <trkpt lat="42.26713" lon="0.03311">
        <ele>988.1</ele>
        <time>2015-09-24T10:45:52Z</time>
      </trkpt>
      <trkpt lat="42.26715" lon="0.03316">
        <ele>987.8</ele>
        <time>2015-09-24T10:45:53Z</time>
      </trkpt>
      <trkpt lat="42.26718" lon="0.03321">
        <ele>987.4</ele>
        <time>2015-09-24T10:45:54Z</time>
      </trkpt>
      <trkpt lat="42.2672" lon="0.03326">
        <ele>987</ele>
        <time>2015-09-24T10:45:55Z</time>
      </trkpt>
      <trkpt lat="42.26723" lon="0.03331">
        <ele>986.6</ele>
        <time>2015-09-24T10:45:56Z</time>
      </trkpt>
      <trkpt lat="42.26725" lon="0.03336">
        <ele>986.3</ele>
        <time>2015-09-24T10:45:57Z</time>
      </trkpt>
      <trkpt lat="42.26728" lon="0.03341">
        <ele>986</ele>
        <time>2015-09-24T10:45:58Z</time>
      </trkpt>
      <trkpt lat="42.2673" lon="0.03346">
        <ele>985.7</ele>
        <time>2015-09-24T10:45:59Z</time>
      </trkpt>
      <trkpt lat="42.26733" lon="0.03351">
        <ele>985.4</ele>
        <time>2015-09-24T10:46:00Z</time>
      </trkpt>
      <trkpt lat="42.26734" lon="0.03356">
        <ele>984.8</ele>
        <time>2015-09-24T10:46:01Z</time>
      </trkpt>
      <trkpt lat="42.26737" lon="0.03361">
        <ele>984.5</ele>
        <time>2015-09-24T10:46:02Z</time>
      </trkpt>
      <trkpt lat="42.26739" lon="0.03366">
        <ele>984.3</ele>
        <time>2015-09-24T10:46:03Z</time>
      </trkpt>
      <trkpt lat="42.26742" lon="0.0337">
        <ele>984.1</ele>
        <time>2015-09-24T10:46:04Z</time>
      </trkpt>
      <trkpt lat="42.26744" lon="0.03373">
        <ele>984.1</ele>
        <time>2015-09-24T10:46:05Z</time>
      </trkpt>
      <trkpt lat="42.26746" lon="0.03376">
        <ele>984.1</ele>
        <time>2015-09-24T10:46:06Z</time>
      </trkpt>
      <trkpt lat="42.26748" lon="0.0338">
        <ele>984</ele>
        <time>2015-09-24T10:46:07Z</time>
      </trkpt>
      <trkpt lat="42.2675" lon="0.03384">
        <ele>983.9</ele>
        <time>2015-09-24T10:46:08Z</time>
      </trkpt>
      <trkpt lat="42.26751" lon="0.03387">
        <ele>983.6</ele>
        <time>2015-09-24T10:46:09Z</time>
      </trkpt>
      <trkpt lat="42.26753" lon="0.03391">
        <ele>983.3</ele>
        <time>2015-09-24T10:46:10Z</time>
      </trkpt>
      <trkpt lat="42.26755" lon="0.03397">
        <ele>982.9</ele>
        <time>2015-09-24T10:46:12Z</time>
      </trkpt>
      <trkpt lat="42.26757" lon="0.034">
        <ele>982.8</ele>
        <time>2015-09-24T10:46:13Z</time>
      </trkpt>
      <trkpt lat="42.26759" lon="0.03403">
        <ele>982.6</ele>
        <time>2015-09-24T10:46:14Z</time>
      </trkpt>
      <trkpt lat="42.26761" lon="0.03407">
        <ele>982.4</ele>
        <time>2015-09-24T10:46:15Z</time>
      </trkpt>
      <trkpt lat="42.26763" lon="0.03411">
        <ele>982.2</ele>
        <time>2015-09-24T10:46:16Z</time>
      </trkpt>
      <trkpt lat="42.26764" lon="0.03415">
        <ele>982</ele>
        <time>2015-09-24T10:46:17Z</time>
      </trkpt>
      <trkpt lat="42.26766" lon="0.03419">
        <ele>981.7</ele>
        <time>2015-09-24T10:46:18Z</time>
      </trkpt>
      <trkpt lat="42.26768" lon="0.03422">
        <ele>981.7</ele>
        <time>2015-09-24T10:46:19Z</time>
      </trkpt>
      <trkpt lat="42.26771" lon="0.03425">
        <ele>981.8</ele>
        <time>2015-09-24T10:46:21Z</time>
      </trkpt>
      <trkpt lat="42.26774" lon="0.03429">
        <ele>981.9</ele>
        <time>2015-09-24T10:46:23Z</time>
      </trkpt>
      <trkpt lat="42.26777" lon="0.03432">
        <ele>982.1</ele>
        <time>2015-09-24T10:46:24Z</time>
      </trkpt>
      <trkpt lat="42.26779" lon="0.03434">
        <ele>982.3</ele>
        <time>2015-09-24T10:46:25Z</time>
      </trkpt>
      <trkpt lat="42.26781" lon="0.03436">
        <ele>982.4</ele>
        <time>2015-09-24T10:46:26Z</time>
      </trkpt>
      <trkpt lat="42.26783" lon="0.03439">
        <ele>982.4</ele>
        <time>2015-09-24T10:46:27Z</time>
      </trkpt>
      <trkpt lat="42.26785" lon="0.03442">
        <ele>982.4</ele>
        <time>2015-09-24T10:46:28Z</time>
      </trkpt>
      <trkpt lat="42.26788" lon="0.03445">
        <ele>982.7</ele>
        <time>2015-09-24T10:46:29Z</time>
      </trkpt>
      <trkpt lat="42.26791" lon="0.03446">
        <ele>983.2</ele>
        <time>2015-09-24T10:46:30Z</time>
      </trkpt>
      <trkpt lat="42.26794" lon="0.03448">
        <ele>983.4</ele>
        <time>2015-09-24T10:46:31Z</time>
      </trkpt>
      <trkpt lat="42.268" lon="0.03449">
        <ele>983.9</ele>
        <time>2015-09-24T10:46:33Z</time>
      </trkpt>
      <trkpt lat="42.26802" lon="0.03449">
        <ele>984.4</ele>
        <time>2015-09-24T10:46:34Z</time>
      </trkpt>
      <trkpt lat="42.26806" lon="0.03448">
        <ele>985.1</ele>
        <time>2015-09-24T10:46:35Z</time>
      </trkpt>
      <trkpt lat="42.2681" lon="0.03446">
        <ele>986.1</ele>
        <time>2015-09-24T10:46:36Z</time>
      </trkpt>
      <trkpt lat="42.26814" lon="0.03444">
        <ele>987.1</ele>
        <time>2015-09-24T10:46:37Z</time>
      </trkpt>
      <trkpt lat="42.26818" lon="0.03442">
        <ele>988</ele>
        <time>2015-09-24T10:46:38Z</time>
      </trkpt>
      <trkpt lat="42.26822" lon="0.03441">
        <ele>989</ele>
        <time>2015-09-24T10:46:39Z</time>
      </trkpt>
      <trkpt lat="42.26826" lon="0.03439">
        <ele>989.8</ele>
        <time>2015-09-24T10:46:40Z</time>
      </trkpt>
      <trkpt lat="42.2683" lon="0.03437">
        <ele>990.7</ele>
        <time>2015-09-24T10:46:41Z</time>
      </trkpt>
      <trkpt lat="42.26835" lon="0.03437">
        <ele>991.5</ele>
        <time>2015-09-24T10:46:43Z</time>
      </trkpt>
      <trkpt lat="42.26838" lon="0.03439">
        <ele>991.6</ele>
        <time>2015-09-24T10:46:44Z</time>
      </trkpt>
      <trkpt lat="42.2684" lon="0.03441">
        <ele>991.5</ele>
        <time>2015-09-24T10:46:45Z</time>
      </trkpt>
      <trkpt lat="42.26842" lon="0.03445">
        <ele>991.3</ele>
        <time>2015-09-24T10:46:46Z</time>
      </trkpt>
      <trkpt lat="42.26845" lon="0.03448">
        <ele>991</ele>
        <time>2015-09-24T10:46:47Z</time>
      </trkpt>
      <trkpt lat="42.26847" lon="0.03453">
        <ele>990.5</ele>
        <time>2015-09-24T10:46:48Z</time>
      </trkpt>
      <trkpt lat="42.26849" lon="0.03458">
        <ele>990</ele>
        <time>2015-09-24T10:46:49Z</time>
      </trkpt>
      <trkpt lat="42.26851" lon="0.03464">
        <ele>989.4</ele>
        <time>2015-09-24T10:46:50Z</time>
      </trkpt>
      <trkpt lat="42.26854" lon="0.03469">
        <ele>988.7</ele>
        <time>2015-09-24T10:46:51Z</time>
      </trkpt>
      <trkpt lat="42.26856" lon="0.03476">
        <ele>987.7</ele>
        <time>2015-09-24T10:46:52Z</time>
      </trkpt>
      <trkpt lat="42.26858" lon="0.0348">
        <ele>987.4</ele>
        <time>2015-09-24T10:46:53Z</time>
      </trkpt>
      <trkpt lat="42.2686" lon="0.03483">
        <ele>987.2</ele>
        <time>2015-09-24T10:46:55Z</time>
      </trkpt>
      <trkpt lat="42.26862" lon="0.03486">
        <ele>986.8</ele>
        <time>2015-09-24T10:46:57Z</time>
      </trkpt>
      <trkpt lat="42.26864" lon="0.03491">
        <ele>986.1</ele>
        <time>2015-09-24T10:46:59Z</time>
      </trkpt>
      <trkpt lat="42.26867" lon="0.03497">
        <ele>985.5</ele>
        <time>2015-09-24T10:47:01Z</time>
      </trkpt>
      <trkpt lat="42.26868" lon="0.035">
        <ele>985</ele>
        <time>2015-09-24T10:47:02Z</time>
      </trkpt>
      <trkpt lat="42.2687" lon="0.03504">
        <ele>984.5</ele>
        <time>2015-09-24T10:47:03Z</time>
      </trkpt>
      <trkpt lat="42.26871" lon="0.03507">
        <ele>984.1</ele>
        <time>2015-09-24T10:47:04Z</time>
      </trkpt>
      <trkpt lat="42.26875" lon="0.03512">
        <ele>983.6</ele>
        <time>2015-09-24T10:47:06Z</time>
      </trkpt>
      <trkpt lat="42.26878" lon="0.03517">
        <ele>983.6</ele>
        <time>2015-09-24T10:47:08Z</time>
      </trkpt>
      <trkpt lat="42.26881" lon="0.03523">
        <ele>983.2</ele>
        <time>2015-09-24T10:47:10Z</time>
      </trkpt>
      <trkpt lat="42.26883" lon="0.03526">
        <ele>983</ele>
        <time>2015-09-24T10:47:11Z</time>
      </trkpt>
      <trkpt lat="42.26884" lon="0.03529">
        <ele>982.8</ele>
        <time>2015-09-24T10:47:12Z</time>
      </trkpt>
      <trkpt lat="42.26886" lon="0.03533">
        <ele>982.6</ele>
        <time>2015-09-24T10:47:13Z</time>
      </trkpt>
      <trkpt lat="42.26887" lon="0.03536">
        <ele>982.3</ele>
        <time>2015-09-24T10:47:14Z</time>
      </trkpt>
      <trkpt lat="42.26888" lon="0.0354">
        <ele>981.9</ele>
        <time>2015-09-24T10:47:15Z</time>
      </trkpt>
      <trkpt lat="42.2689" lon="0.03545">
        <ele>981.4</ele>
        <time>2015-09-24T10:47:16Z</time>
      </trkpt>
      <trkpt lat="42.26891" lon="0.0355">
        <ele>980.8</ele>
        <time>2015-09-24T10:47:17Z</time>
      </trkpt>
      <trkpt lat="42.26893" lon="0.03555">
        <ele>980.3</ele>
        <time>2015-09-24T10:47:18Z</time>
      </trkpt>
      <trkpt lat="42.26895" lon="0.0356">
        <ele>979.8</ele>
        <time>2015-09-24T10:47:19Z</time>
      </trkpt>
      <trkpt lat="42.26896" lon="0.03565">
        <ele>979.4</ele>
        <time>2015-09-24T10:47:20Z</time>
      </trkpt>
      <trkpt lat="42.26898" lon="0.0357">
        <ele>978.9</ele>
        <time>2015-09-24T10:47:21Z</time>
      </trkpt>
      <trkpt lat="42.269" lon="0.03575">
        <ele>978.4</ele>
        <time>2015-09-24T10:47:22Z</time>
      </trkpt>
      <trkpt lat="42.26901" lon="0.03581">
        <ele>977.8</ele>
        <time>2015-09-24T10:47:23Z</time>
      </trkpt>
      <trkpt lat="42.26902" lon="0.03586">
        <ele>977.1</ele>
        <time>2015-09-24T10:47:24Z</time>
      </trkpt>
      <trkpt lat="42.26903" lon="0.03592">
        <ele>976.4</ele>
        <time>2015-09-24T10:47:25Z</time>
      </trkpt>
      <trkpt lat="42.26905" lon="0.03597">
        <ele>975.8</ele>
        <time>2015-09-24T10:47:26Z</time>
      </trkpt>
      <trkpt lat="42.26906" lon="0.03603">
        <ele>975.2</ele>
        <time>2015-09-24T10:47:27Z</time>
      </trkpt>
      <trkpt lat="42.26908" lon="0.03608">
        <ele>974.7</ele>
        <time>2015-09-24T10:47:28Z</time>
      </trkpt>
      <trkpt lat="42.26909" lon="0.03613">
        <ele>974.1</ele>
        <time>2015-09-24T10:47:29Z</time>
      </trkpt>
      <trkpt lat="42.2691" lon="0.03619">
        <ele>973.5</ele>
        <time>2015-09-24T10:47:30Z</time>
      </trkpt>
      <trkpt lat="42.26911" lon="0.03624">
        <ele>972.8</ele>
        <time>2015-09-24T10:47:31Z</time>
      </trkpt>
      <trkpt lat="42.26912" lon="0.0363">
        <ele>972.6</ele>
        <time>2015-09-24T10:47:32Z</time>
      </trkpt>
      <trkpt lat="42.26914" lon="0.03635">
        <ele>972.4</ele>
        <time>2015-09-24T10:47:33Z</time>
      </trkpt>
      <trkpt lat="42.26915" lon="0.03641">
        <ele>972.2</ele>
        <time>2015-09-24T10:47:34Z</time>
      </trkpt>
      <trkpt lat="42.26916" lon="0.03647">
        <ele>971.8</ele>
        <time>2015-09-24T10:47:35Z</time>
      </trkpt>
      <trkpt lat="42.26917" lon="0.03652">
        <ele>971.5</ele>
        <time>2015-09-24T10:47:36Z</time>
      </trkpt>
      <trkpt lat="42.26918" lon="0.03657">
        <ele>971.1</ele>
        <time>2015-09-24T10:47:37Z</time>
      </trkpt>
      <trkpt lat="42.26918" lon="0.03661">
        <ele>970.9</ele>
        <time>2015-09-24T10:47:38Z</time>
      </trkpt>
      <trkpt lat="42.26919" lon="0.03666">
        <ele>970.6</ele>
        <time>2015-09-24T10:47:39Z</time>
      </trkpt>
      <trkpt lat="42.2692" lon="0.0367">
        <ele>970.4</ele>
        <time>2015-09-24T10:47:40Z</time>
      </trkpt>
      <trkpt lat="42.26921" lon="0.03674">
        <ele>970.1</ele>
        <time>2015-09-24T10:47:41Z</time>
      </trkpt>
      <trkpt lat="42.26922" lon="0.03678">
        <ele>970</ele>
        <time>2015-09-24T10:47:42Z</time>
      </trkpt>
      <trkpt lat="42.26923" lon="0.03682">
        <ele>969.9</ele>
        <time>2015-09-24T10:47:43Z</time>
      </trkpt>
      <trkpt lat="42.26924" lon="0.03686">
        <ele>969.9</ele>
        <time>2015-09-24T10:47:44Z</time>
      </trkpt>
      <trkpt lat="42.26926" lon="0.0369">
        <ele>970</ele>
        <time>2015-09-24T10:47:45Z</time>
      </trkpt>
      <trkpt lat="42.26928" lon="0.03694">
        <ele>970.1</ele>
        <time>2015-09-24T10:47:46Z</time>
      </trkpt>
      <trkpt lat="42.2693" lon="0.03698">
        <ele>970.3</ele>
        <time>2015-09-24T10:47:47Z</time>
      </trkpt>
      <trkpt lat="42.26932" lon="0.03702">
        <ele>970.6</ele>
        <time>2015-09-24T10:47:48Z</time>
      </trkpt>
      <trkpt lat="42.26935" lon="0.03706">
        <ele>971</ele>
        <time>2015-09-24T10:47:49Z</time>
      </trkpt>
      <trkpt lat="42.26938" lon="0.0371">
        <ele>971.6</ele>
        <time>2015-09-24T10:47:50Z</time>
      </trkpt>
      <trkpt lat="42.26941" lon="0.03714">
        <ele>972.4</ele>
        <time>2015-09-24T10:47:51Z</time>
      </trkpt>
      <trkpt lat="42.26945" lon="0.03718">
        <ele>973.3</ele>
        <time>2015-09-24T10:47:52Z</time>
      </trkpt>
      <trkpt lat="42.26951" lon="0.03722">
        <ele>974.8</ele>
        <time>2015-09-24T10:47:53Z</time>
      </trkpt>
      <trkpt lat="42.26954" lon="0.03725">
        <ele>975.8</ele>
        <time>2015-09-24T10:47:54Z</time>
      </trkpt>
      <trkpt lat="42.26958" lon="0.03727">
        <ele>976.9</ele>
        <time>2015-09-24T10:47:55Z</time>
      </trkpt>
      <trkpt lat="42.26963" lon="0.0373">
        <ele>977.2</ele>
        <time>2015-09-24T10:47:56Z</time>
      </trkpt>
      <trkpt lat="42.26966" lon="0.03733">
        <ele>977.4</ele>
        <time>2015-09-24T10:47:57Z</time>
      </trkpt>
      <trkpt lat="42.2697" lon="0.03734">
        <ele>977.6</ele>
        <time>2015-09-24T10:47:58Z</time>
      </trkpt>
      <trkpt lat="42.26974" lon="0.03737">
        <ele>977.8</ele>
        <time>2015-09-24T10:47:59Z</time>
      </trkpt>
      <trkpt lat="42.26976" lon="0.03738">
        <ele>977.9</ele>
        <time>2015-09-24T10:48:00Z</time>
      </trkpt>
      <trkpt lat="42.26979" lon="0.0374">
        <ele>978</ele>
        <time>2015-09-24T10:48:01Z</time>
      </trkpt>
      <trkpt lat="42.26981" lon="0.03742">
        <ele>978.1</ele>
        <time>2015-09-24T10:48:02Z</time>
      </trkpt>
      <trkpt lat="42.26984" lon="0.03745">
        <ele>978.1</ele>
        <time>2015-09-24T10:48:03Z</time>
      </trkpt>
      <trkpt lat="42.26987" lon="0.03747">
        <ele>978.2</ele>
        <time>2015-09-24T10:48:04Z</time>
      </trkpt>
      <trkpt lat="42.26991" lon="0.03749">
        <ele>978.4</ele>
        <time>2015-09-24T10:48:05Z</time>
      </trkpt>
      <trkpt lat="42.26994" lon="0.0375">
        <ele>978.5</ele>
        <time>2015-09-24T10:48:06Z</time>
      </trkpt>
      <trkpt lat="42.26998" lon="0.03752">
        <ele>978.7</ele>
        <time>2015-09-24T10:48:07Z</time>
      </trkpt>
      <trkpt lat="42.27002" lon="0.03753">
        <ele>978.8</ele>
        <time>2015-09-24T10:48:08Z</time>
      </trkpt>
      <trkpt lat="42.27005" lon="0.03754">
        <ele>978.9</ele>
        <time>2015-09-24T10:48:09Z</time>
      </trkpt>
      <trkpt lat="42.27008" lon="0.03756">
        <ele>979</ele>
        <time>2015-09-24T10:48:10Z</time>
      </trkpt>
      <trkpt lat="42.27012" lon="0.03757">
        <ele>979.2</ele>
        <time>2015-09-24T10:48:11Z</time>
      </trkpt>
      <trkpt lat="42.27016" lon="0.03758">
        <ele>979.2</ele>
        <time>2015-09-24T10:48:12Z</time>
      </trkpt>
      <trkpt lat="42.27019" lon="0.0376">
        <ele>979.3</ele>
        <time>2015-09-24T10:48:13Z</time>
      </trkpt>
      <trkpt lat="42.27024" lon="0.03761">
        <ele>979.6</ele>
        <time>2015-09-24T10:48:15Z</time>
      </trkpt>
      <trkpt lat="42.27027" lon="0.03761">
        <ele>979.7</ele>
        <time>2015-09-24T10:48:16Z</time>
      </trkpt>
      <trkpt lat="42.2703" lon="0.03761">
        <ele>979.9</ele>
        <time>2015-09-24T10:48:17Z</time>
      </trkpt>
      <trkpt lat="42.27032" lon="0.03762">
        <ele>980</ele>
        <time>2015-09-24T10:48:18Z</time>
      </trkpt>
      <trkpt lat="42.27035" lon="0.03762">
        <ele>980.1</ele>
        <time>2015-09-24T10:48:19Z</time>
      </trkpt>
      <trkpt lat="42.27039" lon="0.03764">
        <ele>980.2</ele>
        <time>2015-09-24T10:48:20Z</time>
      </trkpt>
      <trkpt lat="42.27043" lon="0.03766">
        <ele>980</ele>
        <time>2015-09-24T10:48:21Z</time>
      </trkpt>
      <trkpt lat="42.27046" lon="0.03767">
        <ele>979.7</ele>
        <time>2015-09-24T10:48:22Z</time>
      </trkpt>
      <trkpt lat="42.2705" lon="0.03768">
        <ele>979.5</ele>
        <time>2015-09-24T10:48:23Z</time>
      </trkpt>
      <trkpt lat="42.27053" lon="0.03767">
        <ele>979.6</ele>
        <time>2015-09-24T10:48:24Z</time>
      </trkpt>
      <trkpt lat="42.27057" lon="0.03766">
        <ele>979.6</ele>
        <time>2015-09-24T10:48:25Z</time>
      </trkpt>
      <trkpt lat="42.27061" lon="0.03766">
        <ele>979.6</ele>
        <time>2015-09-24T10:48:26Z</time>
      </trkpt>
      <trkpt lat="42.27065" lon="0.03765">
        <ele>979.5</ele>
        <time>2015-09-24T10:48:27Z</time>
      </trkpt>
      <trkpt lat="42.27069" lon="0.03765">
        <ele>979.6</ele>
        <time>2015-09-24T10:48:28Z</time>
      </trkpt>
      <trkpt lat="42.27073" lon="0.03763">
        <ele>979.8</ele>
        <time>2015-09-24T10:48:29Z</time>
      </trkpt>
      <trkpt lat="42.27078" lon="0.03761">
        <ele>979.9</ele>
        <time>2015-09-24T10:48:30Z</time>
      </trkpt>
      <trkpt lat="42.27082" lon="0.0376">
        <ele>980</ele>
        <time>2015-09-24T10:48:31Z</time>
      </trkpt>
      <trkpt lat="42.27087" lon="0.0376">
        <ele>980</ele>
        <time>2015-09-24T10:48:32Z</time>
      </trkpt>
      <trkpt lat="42.27091" lon="0.0376">
        <ele>979.9</ele>
        <time>2015-09-24T10:48:33Z</time>
      </trkpt>
      <trkpt lat="42.27095" lon="0.03761">
        <ele>979.5</ele>
        <time>2015-09-24T10:48:34Z</time>
      </trkpt>
      <trkpt lat="42.271" lon="0.03764">
        <ele>979</ele>
        <time>2015-09-24T10:48:35Z</time>
      </trkpt>
      <trkpt lat="42.27105" lon="0.03767">
        <ele>978.3</ele>
        <time>2015-09-24T10:48:36Z</time>
      </trkpt>
      <trkpt lat="42.2711" lon="0.03769">
        <ele>977.8</ele>
        <time>2015-09-24T10:48:37Z</time>
      </trkpt>
      <trkpt lat="42.27114" lon="0.03772">
        <ele>977.1</ele>
        <time>2015-09-24T10:48:38Z</time>
      </trkpt>
      <trkpt lat="42.27119" lon="0.03775">
        <ele>976.4</ele>
        <time>2015-09-24T10:48:39Z</time>
      </trkpt>
      <trkpt lat="42.27124" lon="0.03778">
        <ele>975.7</ele>
        <time>2015-09-24T10:48:40Z</time>
      </trkpt>
      <trkpt lat="42.27128" lon="0.03782">
        <ele>975</ele>
        <time>2015-09-24T10:48:41Z</time>
      </trkpt>
      <trkpt lat="42.27132" lon="0.03787">
        <ele>974.4</ele>
        <time>2015-09-24T10:48:42Z</time>
      </trkpt>
      <trkpt lat="42.27136" lon="0.03792">
        <ele>973.7</ele>
        <time>2015-09-24T10:48:43Z</time>
      </trkpt>
      <trkpt lat="42.2714" lon="0.03797">
        <ele>973.2</ele>
        <time>2015-09-24T10:48:44Z</time>
      </trkpt>
      <trkpt lat="42.27144" lon="0.03802">
        <ele>972.8</ele>
        <time>2015-09-24T10:48:45Z</time>
      </trkpt>
      <trkpt lat="42.27148" lon="0.03806">
        <ele>972.5</ele>
        <time>2015-09-24T10:48:46Z</time>
      </trkpt>
      <trkpt lat="42.27152" lon="0.03811">
        <ele>972</ele>
        <time>2015-09-24T10:48:47Z</time>
      </trkpt>
      <trkpt lat="42.27156" lon="0.03815">
        <ele>971.6</ele>
        <time>2015-09-24T10:48:48Z</time>
      </trkpt>
      <trkpt lat="42.27159" lon="0.0382">
        <ele>971.1</ele>
        <time>2015-09-24T10:48:49Z</time>
      </trkpt>
      <trkpt lat="42.27163" lon="0.03825">
        <ele>970.6</ele>
        <time>2015-09-24T10:48:50Z</time>
      </trkpt>
      <trkpt lat="42.27167" lon="0.0383">
        <ele>969.9</ele>
        <time>2015-09-24T10:48:51Z</time>
      </trkpt>
      <trkpt lat="42.27171" lon="0.03836">
        <ele>969.2</ele>
        <time>2015-09-24T10:48:52Z</time>
      </trkpt>
      <trkpt lat="42.27175" lon="0.03842">
        <ele>968.5</ele>
        <time>2015-09-24T10:48:53Z</time>
      </trkpt>
      <trkpt lat="42.2718" lon="0.03847">
        <ele>967.9</ele>
        <time>2015-09-24T10:48:54Z</time>
      </trkpt>
      <trkpt lat="42.27185" lon="0.03853">
        <ele>967.2</ele>
        <time>2015-09-24T10:48:55Z</time>
      </trkpt>
      <trkpt lat="42.2719" lon="0.03856">
        <ele>966.7</ele>
        <time>2015-09-24T10:48:56Z</time>
      </trkpt>
      <trkpt lat="42.27195" lon="0.03859">
        <ele>966.4</ele>
        <time>2015-09-24T10:48:57Z</time>
      </trkpt>
      <trkpt lat="42.27199" lon="0.03863">
        <ele>965.9</ele>
        <time>2015-09-24T10:48:58Z</time>
      </trkpt>
      <trkpt lat="42.27204" lon="0.03865">
        <ele>965.5</ele>
        <time>2015-09-24T10:48:59Z</time>
      </trkpt>
      <trkpt lat="42.27209" lon="0.03868">
        <ele>965.2</ele>
        <time>2015-09-24T10:49:00Z</time>
      </trkpt>
      <trkpt lat="42.27212" lon="0.03872">
        <ele>965.1</ele>
        <time>2015-09-24T10:49:01Z</time>
      </trkpt>
      <trkpt lat="42.27217" lon="0.03873">
        <ele>965.5</ele>
        <time>2015-09-24T10:49:02Z</time>
      </trkpt>
      <trkpt lat="42.27221" lon="0.03875">
        <ele>966</ele>
        <time>2015-09-24T10:49:03Z</time>
      </trkpt>
      <trkpt lat="42.27225" lon="0.03877">
        <ele>966.3</ele>
        <time>2015-09-24T10:49:04Z</time>
      </trkpt>
      <trkpt lat="42.27229" lon="0.03878">
        <ele>966.6</ele>
        <time>2015-09-24T10:49:05Z</time>
      </trkpt>
      <trkpt lat="42.27232" lon="0.03879">
        <ele>966.9</ele>
        <time>2015-09-24T10:49:06Z</time>
      </trkpt>
      <trkpt lat="42.27236" lon="0.03881">
        <ele>967.2</ele>
        <time>2015-09-24T10:49:07Z</time>
      </trkpt>
      <trkpt lat="42.2724" lon="0.03883">
        <ele>967.5</ele>
        <time>2015-09-24T10:49:08Z</time>
      </trkpt>
      <trkpt lat="42.27244" lon="0.03885">
        <ele>967.7</ele>
        <time>2015-09-24T10:49:09Z</time>
      </trkpt>
      <trkpt lat="42.27248" lon="0.03887">
        <ele>967.8</ele>
        <time>2015-09-24T10:49:10Z</time>
      </trkpt>
      <trkpt lat="42.27251" lon="0.03889">
        <ele>967.9</ele>
        <time>2015-09-24T10:49:11Z</time>
      </trkpt>
      <trkpt lat="42.27254" lon="0.0389">
        <ele>968</ele>
        <time>2015-09-24T10:49:12Z</time>
      </trkpt>
      <trkpt lat="42.27257" lon="0.03891">
        <ele>968.1</ele>
        <time>2015-09-24T10:49:13Z</time>
      </trkpt>
      <trkpt lat="42.27259" lon="0.03893">
        <ele>968.1</ele>
        <time>2015-09-24T10:49:14Z</time>
      </trkpt>
      <trkpt lat="42.27262" lon="0.03894">
        <ele>968.2</ele>
        <time>2015-09-24T10:49:15Z</time>
      </trkpt>
      <trkpt lat="42.27267" lon="0.03896">
        <ele>968.4</ele>
        <time>2015-09-24T10:49:17Z</time>
      </trkpt>
      <trkpt lat="42.27272" lon="0.03898">
        <ele>968.6</ele>
        <time>2015-09-24T10:49:19Z</time>
      </trkpt>
      <trkpt lat="42.27275" lon="0.03899">
        <ele>968.5</ele>
        <time>2015-09-24T10:49:20Z</time>
      </trkpt>
      <trkpt lat="42.27279" lon="0.03902">
        <ele>968.4</ele>
        <time>2015-09-24T10:49:21Z</time>
      </trkpt>
      <trkpt lat="42.27282" lon="0.03904">
        <ele>968.2</ele>
        <time>2015-09-24T10:49:22Z</time>
      </trkpt>
      <trkpt lat="42.27286" lon="0.03907">
        <ele>968</ele>
        <time>2015-09-24T10:49:23Z</time>
      </trkpt>
      <trkpt lat="42.2729" lon="0.0391">
        <ele>967.7</ele>
        <time>2015-09-24T10:49:24Z</time>
      </trkpt>
      <trkpt lat="42.27294" lon="0.03913">
        <ele>967.4</ele>
        <time>2015-09-24T10:49:25Z</time>
      </trkpt>
      <trkpt lat="42.27297" lon="0.03916">
        <ele>967.1</ele>
        <time>2015-09-24T10:49:26Z</time>
      </trkpt>
      <trkpt lat="42.27301" lon="0.0392">
        <ele>966.9</ele>
        <time>2015-09-24T10:49:27Z</time>
      </trkpt>
      <trkpt lat="42.27305" lon="0.03923">
        <ele>966.6</ele>
        <time>2015-09-24T10:49:28Z</time>
      </trkpt>
      <trkpt lat="42.27308" lon="0.03927">
        <ele>966.1</ele>
        <time>2015-09-24T10:49:29Z</time>
      </trkpt>
      <trkpt lat="42.27311" lon="0.03932">
        <ele>965.5</ele>
        <time>2015-09-24T10:49:30Z</time>
      </trkpt>
      <trkpt lat="42.27315" lon="0.03937">
        <ele>964.8</ele>
        <time>2015-09-24T10:49:31Z</time>
      </trkpt>
      <trkpt lat="42.27318" lon="0.03939">
        <ele>964.6</ele>
        <time>2015-09-24T10:49:32Z</time>
      </trkpt>
      <trkpt lat="42.27321" lon="0.03943">
        <ele>964.2</ele>
        <time>2015-09-24T10:49:33Z</time>
      </trkpt>
      <trkpt lat="42.27324" lon="0.03947">
        <ele>963.8</ele>
        <time>2015-09-24T10:49:34Z</time>
      </trkpt>
      <trkpt lat="42.27327" lon="0.03951">
        <ele>963.3</ele>
        <time>2015-09-24T10:49:35Z</time>
      </trkpt>
      <trkpt lat="42.2733" lon="0.03954">
        <ele>963</ele>
        <time>2015-09-24T10:49:36Z</time>
      </trkpt>
      <trkpt lat="42.27333" lon="0.03957">
        <ele>962.8</ele>
        <time>2015-09-24T10:49:37Z</time>
      </trkpt>
      <trkpt lat="42.27336" lon="0.0396">
        <ele>962.6</ele>
        <time>2015-09-24T10:49:38Z</time>
      </trkpt>
      <trkpt lat="42.27339" lon="0.03964">
        <ele>962.3</ele>
        <time>2015-09-24T10:49:39Z</time>
      </trkpt>
      <trkpt lat="42.27342" lon="0.03968">
        <ele>962</ele>
        <time>2015-09-24T10:49:40Z</time>
      </trkpt>
      <trkpt lat="42.27345" lon="0.03972">
        <ele>961.8</ele>
        <time>2015-09-24T10:49:41Z</time>
      </trkpt>
      <trkpt lat="42.27348" lon="0.03975">
        <ele>961.6</ele>
        <time>2015-09-24T10:49:42Z</time>
      </trkpt>
      <trkpt lat="42.27351" lon="0.03979">
        <ele>961.3</ele>
        <time>2015-09-24T10:49:43Z</time>
      </trkpt>
      <trkpt lat="42.27354" lon="0.03982">
        <ele>961</ele>
        <time>2015-09-24T10:49:44Z</time>
      </trkpt>
      <trkpt lat="42.27357" lon="0.03986">
        <ele>960.7</ele>
        <time>2015-09-24T10:49:45Z</time>
      </trkpt>
      <trkpt lat="42.27359" lon="0.0399">
        <ele>960.3</ele>
        <time>2015-09-24T10:49:46Z</time>
      </trkpt>
      <trkpt lat="42.27362" lon="0.03994">
        <ele>959.9</ele>
        <time>2015-09-24T10:49:47Z</time>
      </trkpt>
      <trkpt lat="42.27365" lon="0.03997">
        <ele>959.6</ele>
        <time>2015-09-24T10:49:48Z</time>
      </trkpt>
      <trkpt lat="42.27368" lon="0.04">
        <ele>959.4</ele>
        <time>2015-09-24T10:49:49Z</time>
      </trkpt>
      <trkpt lat="42.27371" lon="0.04003">
        <ele>959.1</ele>
        <time>2015-09-24T10:49:50Z</time>
      </trkpt>
      <trkpt lat="42.27374" lon="0.04007">
        <ele>958.8</ele>
        <time>2015-09-24T10:49:51Z</time>
      </trkpt>
      <trkpt lat="42.27377" lon="0.0401">
        <ele>958.5</ele>
        <time>2015-09-24T10:49:52Z</time>
      </trkpt>
      <trkpt lat="42.2738" lon="0.04014">
        <ele>958.2</ele>
        <time>2015-09-24T10:49:53Z</time>
      </trkpt>
      <trkpt lat="42.27383" lon="0.04017">
        <ele>957.9</ele>
        <time>2015-09-24T10:49:54Z</time>
      </trkpt>
      <trkpt lat="42.27386" lon="0.04021">
        <ele>957.6</ele>
        <time>2015-09-24T10:49:55Z</time>
      </trkpt>
      <trkpt lat="42.2739" lon="0.04025">
        <ele>957.3</ele>
        <time>2015-09-24T10:49:56Z</time>
      </trkpt>
      <trkpt lat="42.27393" lon="0.04029">
        <ele>957</ele>
        <time>2015-09-24T10:49:57Z</time>
      </trkpt>
      <trkpt lat="42.27396" lon="0.04032">
        <ele>956.9</ele>
        <time>2015-09-24T10:49:58Z</time>
      </trkpt>
      <trkpt lat="42.274" lon="0.04035">
        <ele>956.9</ele>
        <time>2015-09-24T10:49:59Z</time>
      </trkpt>
      <trkpt lat="42.27403" lon="0.04038">
        <ele>956.9</ele>
        <time>2015-09-24T10:50:00Z</time>
      </trkpt>
      <trkpt lat="42.27407" lon="0.04041">
        <ele>956.9</ele>
        <time>2015-09-24T10:50:01Z</time>
      </trkpt>
      <trkpt lat="42.27411" lon="0.04043">
        <ele>957.1</ele>
        <time>2015-09-24T10:50:02Z</time>
      </trkpt>
      <trkpt lat="42.27415" lon="0.04045">
        <ele>957.3</ele>
        <time>2015-09-24T10:50:03Z</time>
      </trkpt>
      <trkpt lat="42.27418" lon="0.04047">
        <ele>957.6</ele>
        <time>2015-09-24T10:50:04Z</time>
      </trkpt>
      <trkpt lat="42.27422" lon="0.04049">
        <ele>957.8</ele>
        <time>2015-09-24T10:50:05Z</time>
      </trkpt>
      <trkpt lat="42.27426" lon="0.0405">
        <ele>958.2</ele>
        <time>2015-09-24T10:50:06Z</time>
      </trkpt>
      <trkpt lat="42.2743" lon="0.04052">
        <ele>958.7</ele>
        <time>2015-09-24T10:50:07Z</time>
      </trkpt>
      <trkpt lat="42.27435" lon="0.04053">
        <ele>959.1</ele>
        <time>2015-09-24T10:50:08Z</time>
      </trkpt>
      <trkpt lat="42.27439" lon="0.04054">
        <ele>959.6</ele>
        <time>2015-09-24T10:50:09Z</time>
      </trkpt>
      <trkpt lat="42.27443" lon="0.04056">
        <ele>960</ele>
        <time>2015-09-24T10:50:10Z</time>
      </trkpt>
      <trkpt lat="42.27449" lon="0.04056">
        <ele>960.9</ele>
        <time>2015-09-24T10:50:11Z</time>
      </trkpt>
      <trkpt lat="42.27453" lon="0.04056">
        <ele>961.6</ele>
        <time>2015-09-24T10:50:12Z</time>
      </trkpt>
      <trkpt lat="42.27458" lon="0.04057">
        <ele>962.3</ele>
        <time>2015-09-24T10:50:13Z</time>
      </trkpt>
      <trkpt lat="42.27462" lon="0.04058">
        <ele>962.3</ele>
        <time>2015-09-24T10:50:14Z</time>
      </trkpt>
      <trkpt lat="42.27468" lon="0.04058">
        <ele>962.5</ele>
        <time>2015-09-24T10:50:15Z</time>
      </trkpt>
      <trkpt lat="42.27472" lon="0.04058">
        <ele>962.7</ele>
        <time>2015-09-24T10:50:16Z</time>
      </trkpt>
      <trkpt lat="42.27477" lon="0.04057">
        <ele>963</ele>
        <time>2015-09-24T10:50:17Z</time>
      </trkpt>
      <trkpt lat="42.27481" lon="0.04056">
        <ele>963.4</ele>
        <time>2015-09-24T10:50:18Z</time>
      </trkpt>
      <trkpt lat="42.27486" lon="0.04055">
        <ele>963.9</ele>
        <time>2015-09-24T10:50:19Z</time>
      </trkpt>
      <trkpt lat="42.2749" lon="0.04054">
        <ele>964.1</ele>
        <time>2015-09-24T10:50:20Z</time>
      </trkpt>
      <trkpt lat="42.27495" lon="0.04053">
        <ele>964.5</ele>
        <time>2015-09-24T10:50:21Z</time>
      </trkpt>
      <trkpt lat="42.275" lon="0.04052">
        <ele>965</ele>
        <time>2015-09-24T10:50:22Z</time>
      </trkpt>
      <trkpt lat="42.27505" lon="0.0405">
        <ele>965.6</ele>
        <time>2015-09-24T10:50:23Z</time>
      </trkpt>
      <trkpt lat="42.27509" lon="0.04049">
        <ele>966.2</ele>
        <time>2015-09-24T10:50:24Z</time>
      </trkpt>
      <trkpt lat="42.27513" lon="0.04046">
        <ele>966.8</ele>
        <time>2015-09-24T10:50:25Z</time>
      </trkpt>
      <trkpt lat="42.27518" lon="0.04044">
        <ele>967.5</ele>
        <time>2015-09-24T10:50:26Z</time>
      </trkpt>
      <trkpt lat="42.27523" lon="0.04043">
        <ele>968.1</ele>
        <time>2015-09-24T10:50:27Z</time>
      </trkpt>
      <trkpt lat="42.27528" lon="0.04041">
        <ele>968.6</ele>
        <time>2015-09-24T10:50:28Z</time>
      </trkpt>
      <trkpt lat="42.27532" lon="0.0404">
        <ele>969.1</ele>
        <time>2015-09-24T10:50:29Z</time>
      </trkpt>
      <trkpt lat="42.27537" lon="0.04036">
        <ele>969.9</ele>
        <time>2015-09-24T10:50:30Z</time>
      </trkpt>
      <trkpt lat="42.27541" lon="0.04033">
        <ele>970.7</ele>
        <time>2015-09-24T10:50:31Z</time>
      </trkpt>
      <trkpt lat="42.27545" lon="0.0403">
        <ele>971</ele>
        <time>2015-09-24T10:50:32Z</time>
      </trkpt>
      <trkpt lat="42.27549" lon="0.0403">
        <ele>970.8</ele>
        <time>2015-09-24T10:50:33Z</time>
      </trkpt>
      <trkpt lat="42.27552" lon="0.04028">
        <ele>970.9</ele>
        <time>2015-09-24T10:50:34Z</time>
      </trkpt>
      <trkpt lat="42.27555" lon="0.04026">
        <ele>971</ele>
        <time>2015-09-24T10:50:35Z</time>
      </trkpt>
      <trkpt lat="42.27559" lon="0.04023">
        <ele>971.3</ele>
        <time>2015-09-24T10:50:36Z</time>
      </trkpt>
      <trkpt lat="42.27562" lon="0.04021">
        <ele>971.3</ele>
        <time>2015-09-24T10:50:37Z</time>
      </trkpt>
      <trkpt lat="42.27565" lon="0.04019">
        <ele>971.5</ele>
        <time>2015-09-24T10:50:38Z</time>
      </trkpt>
      <trkpt lat="42.27568" lon="0.04017">
        <ele>971.8</ele>
        <time>2015-09-24T10:50:39Z</time>
      </trkpt>
      <trkpt lat="42.2757" lon="0.04013">
        <ele>972.2</ele>
        <time>2015-09-24T10:50:40Z</time>
      </trkpt>
      <trkpt lat="42.27572" lon="0.0401">
        <ele>972.6</ele>
        <time>2015-09-24T10:50:41Z</time>
      </trkpt>
      <trkpt lat="42.27576" lon="0.04007">
        <ele>972.8</ele>
        <time>2015-09-24T10:50:43Z</time>
      </trkpt>
      <trkpt lat="42.27581" lon="0.04003">
        <ele>973.2</ele>
        <time>2015-09-24T10:50:45Z</time>
      </trkpt>
      <trkpt lat="42.27585" lon="0.03999">
        <ele>973.6</ele>
        <time>2015-09-24T10:50:47Z</time>
      </trkpt>
      <trkpt lat="42.27588" lon="0.03998">
        <ele>973.5</ele>
        <time>2015-09-24T10:50:48Z</time>
      </trkpt>
      <trkpt lat="42.27591" lon="0.03999">
        <ele>973</ele>
        <time>2015-09-24T10:50:49Z</time>
      </trkpt>
      <trkpt lat="42.27593" lon="0.04001">
        <ele>972.3</ele>
        <time>2015-09-24T10:50:50Z</time>
      </trkpt>
      <trkpt lat="42.27596" lon="0.04005">
        <ele>971.4</ele>
        <time>2015-09-24T10:50:51Z</time>
      </trkpt>
      <trkpt lat="42.27598" lon="0.04009">
        <ele>970.4</ele>
        <time>2015-09-24T10:50:52Z</time>
      </trkpt>
      <trkpt lat="42.276" lon="0.04013">
        <ele>969.5</ele>
        <time>2015-09-24T10:50:53Z</time>
      </trkpt>
      <trkpt lat="42.27602" lon="0.04016">
        <ele>968.7</ele>
        <time>2015-09-24T10:50:54Z</time>
      </trkpt>
      <trkpt lat="42.27604" lon="0.04019">
        <ele>967.9</ele>
        <time>2015-09-24T10:50:55Z</time>
      </trkpt>
      <trkpt lat="42.27606" lon="0.04023">
        <ele>967.1</ele>
        <time>2015-09-24T10:50:56Z</time>
      </trkpt>
      <trkpt lat="42.27608" lon="0.04029">
        <ele>965.8</ele>
        <time>2015-09-24T10:50:58Z</time>
      </trkpt>
      <trkpt lat="42.27611" lon="0.04034">
        <ele>964.5</ele>
        <time>2015-09-24T10:51:00Z</time>
      </trkpt>
      <trkpt lat="42.27614" lon="0.0404">
        <ele>963.3</ele>
        <time>2015-09-24T10:51:02Z</time>
      </trkpt>
      <trkpt lat="42.27616" lon="0.04045">
        <ele>962.3</ele>
        <time>2015-09-24T10:51:04Z</time>
      </trkpt>
      <trkpt lat="42.27618" lon="0.04051">
        <ele>961.6</ele>
        <time>2015-09-24T10:51:06Z</time>
      </trkpt>
      <trkpt lat="42.27621" lon="0.04056">
        <ele>960.9</ele>
        <time>2015-09-24T10:51:08Z</time>
      </trkpt>
      <trkpt lat="42.27623" lon="0.04059">
        <ele>960.4</ele>
        <time>2015-09-24T10:51:10Z</time>
      </trkpt>
      <trkpt lat="42.27625" lon="0.04064">
        <ele>959.9</ele>
        <time>2015-09-24T10:51:12Z</time>
      </trkpt>
      <trkpt lat="42.27627" lon="0.04067">
        <ele>959.9</ele>
        <time>2015-09-24T10:51:14Z</time>
      </trkpt>
      <trkpt lat="42.27629" lon="0.04071">
        <ele>959.9</ele>
        <time>2015-09-24T10:51:16Z</time>
      </trkpt>
      <trkpt lat="42.27631" lon="0.04075">
        <ele>959.9</ele>
        <time>2015-09-24T10:51:18Z</time>
      </trkpt>
      <trkpt lat="42.27633" lon="0.04078">
        <ele>959.9</ele>
        <time>2015-09-24T10:51:20Z</time>
      </trkpt>
      <trkpt lat="42.27634" lon="0.04082">
        <ele>959.9</ele>
        <time>2015-09-24T10:51:22Z</time>
      </trkpt>
      <trkpt lat="42.27636" lon="0.04086">
        <ele>960</ele>
        <time>2015-09-24T10:51:24Z</time>
      </trkpt>
      <trkpt lat="42.27638" lon="0.04089">
        <ele>960</ele>
        <time>2015-09-24T10:51:26Z</time>
      </trkpt>
      <trkpt lat="42.2764" lon="0.04092">
        <ele>960.2</ele>
        <time>2015-09-24T10:51:28Z</time>
      </trkpt>
      <trkpt lat="42.27642" lon="0.04095">
        <ele>960.2</ele>
        <time>2015-09-24T10:51:30Z</time>
      </trkpt>
      <trkpt lat="42.27644" lon="0.04098">
        <ele>960.3</ele>
        <time>2015-09-24T10:51:32Z</time>
      </trkpt>
      <trkpt lat="42.27646" lon="0.04101">
        <ele>960.5</ele>
        <time>2015-09-24T10:51:34Z</time>
      </trkpt>
      <trkpt lat="42.27648" lon="0.04104">
        <ele>960.8</ele>
        <time>2015-09-24T10:51:36Z</time>
      </trkpt>
      <trkpt lat="42.2765" lon="0.04107">
        <ele>960.9</ele>
        <time>2015-09-24T10:51:38Z</time>
      </trkpt>
      <trkpt lat="42.27652" lon="0.0411">
        <ele>961.1</ele>
        <time>2015-09-24T10:51:40Z</time>
      </trkpt>
      <trkpt lat="42.27654" lon="0.04113">
        <ele>961.3</ele>
        <time>2015-09-24T10:51:42Z</time>
      </trkpt>
      <trkpt lat="42.27657" lon="0.04117">
        <ele>961.5</ele>
        <time>2015-09-24T10:51:44Z</time>
      </trkpt>
      <trkpt lat="42.27659" lon="0.04121">
        <ele>961.6</ele>
        <time>2015-09-24T10:51:46Z</time>
      </trkpt>
      <trkpt lat="42.27661" lon="0.04125">
        <ele>961.7</ele>
        <time>2015-09-24T10:51:48Z</time>
      </trkpt>
      <trkpt lat="42.27663" lon="0.04128">
        <ele>962.1</ele>
        <time>2015-09-24T10:51:50Z</time>
      </trkpt>
      <trkpt lat="42.27666" lon="0.04131">
        <ele>962.7</ele>
        <time>2015-09-24T10:51:52Z</time>
      </trkpt>
      <trkpt lat="42.27669" lon="0.04133">
        <ele>963.2</ele>
        <time>2015-09-24T10:51:54Z</time>
      </trkpt>
      <trkpt lat="42.27672" lon="0.04136">
        <ele>963.8</ele>
        <time>2015-09-24T10:51:56Z</time>
      </trkpt>
      <trkpt lat="42.27675" lon="0.04138">
        <ele>964.4</ele>
        <time>2015-09-24T10:51:58Z</time>
      </trkpt>
      <trkpt lat="42.27678" lon="0.04141">
        <ele>964.9</ele>
        <time>2015-09-24T10:52:00Z</time>
      </trkpt>
      <trkpt lat="42.27681" lon="0.04145">
        <ele>965.4</ele>
        <time>2015-09-24T10:52:02Z</time>
      </trkpt>
      <trkpt lat="42.27685" lon="0.0415">
        <ele>966.1</ele>
        <time>2015-09-24T10:52:04Z</time>
      </trkpt>
      <trkpt lat="42.27689" lon="0.04154">
        <ele>966.8</ele>
        <time>2015-09-24T10:52:06Z</time>
      </trkpt>
      <trkpt lat="42.27691" lon="0.04156">
        <ele>967.1</ele>
        <time>2015-09-24T10:52:07Z</time>
      </trkpt>
      <trkpt lat="42.27695" lon="0.04161">
        <ele>967.8</ele>
        <time>2015-09-24T10:52:09Z</time>
      </trkpt>
      <trkpt lat="42.27699" lon="0.04164">
        <ele>968.7</ele>
        <time>2015-09-24T10:52:11Z</time>
      </trkpt>
      <trkpt lat="42.27704" lon="0.04166">
        <ele>969.7</ele>
        <time>2015-09-24T10:52:13Z</time>
      </trkpt>
      <trkpt lat="42.2771" lon="0.04167">
        <ele>970.7</ele>
        <time>2015-09-24T10:52:15Z</time>
      </trkpt>
      <trkpt lat="42.27715" lon="0.04167">
        <ele>971.3</ele>
        <time>2015-09-24T10:52:17Z</time>
      </trkpt>
      <trkpt lat="42.2772" lon="0.04166">
        <ele>971.9</ele>
        <time>2015-09-24T10:52:19Z</time>
      </trkpt>
      <trkpt lat="42.27725" lon="0.04165">
        <ele>972.5</ele>
        <time>2015-09-24T10:52:21Z</time>
      </trkpt>
      <trkpt lat="42.2773" lon="0.04165">
        <ele>973</ele>
        <time>2015-09-24T10:52:23Z</time>
      </trkpt>
      <trkpt lat="42.27735" lon="0.04165">
        <ele>973.6</ele>
        <time>2015-09-24T10:52:25Z</time>
      </trkpt>
      <trkpt lat="42.2774" lon="0.04165">
        <ele>974.2</ele>
        <time>2015-09-24T10:52:27Z</time>
      </trkpt>
      <trkpt lat="42.27743" lon="0.04165">
        <ele>974.5</ele>
        <time>2015-09-24T10:52:28Z</time>
      </trkpt>
      <trkpt lat="42.27746" lon="0.04165">
        <ele>974.9</ele>
        <time>2015-09-24T10:52:29Z</time>
      </trkpt>
      <trkpt lat="42.2775" lon="0.04164">
        <ele>975.3</ele>
        <time>2015-09-24T10:52:30Z</time>
      </trkpt>
      <trkpt lat="42.27753" lon="0.04165">
        <ele>975.7</ele>
        <time>2015-09-24T10:52:31Z</time>
      </trkpt>
      <trkpt lat="42.27756" lon="0.04165">
        <ele>976</ele>
        <time>2015-09-24T10:52:32Z</time>
      </trkpt>
      <trkpt lat="42.2776" lon="0.04165">
        <ele>976.4</ele>
        <time>2015-09-24T10:52:33Z</time>
      </trkpt>
      <trkpt lat="42.27763" lon="0.04165">
        <ele>976.8</ele>
        <time>2015-09-24T10:52:34Z</time>
      </trkpt>
      <trkpt lat="42.27767" lon="0.04165">
        <ele>977.3</ele>
        <time>2015-09-24T10:52:35Z</time>
      </trkpt>
      <trkpt lat="42.27771" lon="0.04164">
        <ele>977.8</ele>
        <time>2015-09-24T10:52:36Z</time>
      </trkpt>
      <trkpt lat="42.27775" lon="0.04163">
        <ele>978.3</ele>
        <time>2015-09-24T10:52:37Z</time>
      </trkpt>
      <trkpt lat="42.27778" lon="0.04162">
        <ele>978.8</ele>
        <time>2015-09-24T10:52:38Z</time>
      </trkpt>
      <trkpt lat="42.27782" lon="0.04161">
        <ele>979.3</ele>
        <time>2015-09-24T10:52:39Z</time>
      </trkpt>
      <trkpt lat="42.27785" lon="0.0416">
        <ele>979.7</ele>
        <time>2015-09-24T10:52:40Z</time>
      </trkpt>
      <trkpt lat="42.27789" lon="0.04159">
        <ele>980.2</ele>
        <time>2015-09-24T10:52:41Z</time>
      </trkpt>
      <trkpt lat="42.27792" lon="0.04158">
        <ele>980.7</ele>
        <time>2015-09-24T10:52:42Z</time>
      </trkpt>
      <trkpt lat="42.27796" lon="0.04157">
        <ele>980.9</ele>
        <time>2015-09-24T10:52:43Z</time>
      </trkpt>
      <trkpt lat="42.27799" lon="0.04157">
        <ele>981.1</ele>
        <time>2015-09-24T10:52:44Z</time>
      </trkpt>
      <trkpt lat="42.27803" lon="0.04157">
        <ele>981.3</ele>
        <time>2015-09-24T10:52:45Z</time>
      </trkpt>
      <trkpt lat="42.27807" lon="0.04157">
        <ele>981.5</ele>
        <time>2015-09-24T10:52:46Z</time>
      </trkpt>
      <trkpt lat="42.2781" lon="0.04156">
        <ele>981.8</ele>
        <time>2015-09-24T10:52:47Z</time>
      </trkpt>
      <trkpt lat="42.27814" lon="0.04155">
        <ele>982.1</ele>
        <time>2015-09-24T10:52:48Z</time>
      </trkpt>
      <trkpt lat="42.27817" lon="0.04153">
        <ele>982.4</ele>
        <time>2015-09-24T10:52:49Z</time>
      </trkpt>
      <trkpt lat="42.27821" lon="0.04152">
        <ele>982.7</ele>
        <time>2015-09-24T10:52:50Z</time>
      </trkpt>
      <trkpt lat="42.27824" lon="0.0415">
        <ele>983.1</ele>
        <time>2015-09-24T10:52:51Z</time>
      </trkpt>
      <trkpt lat="42.27828" lon="0.04149">
        <ele>983.4</ele>
        <time>2015-09-24T10:52:52Z</time>
      </trkpt>
      <trkpt lat="42.27831" lon="0.04149">
        <ele>983.6</ele>
        <time>2015-09-24T10:52:53Z</time>
      </trkpt>
      <trkpt lat="42.27835" lon="0.04148">
        <ele>983.8</ele>
        <time>2015-09-24T10:52:54Z</time>
      </trkpt>
      <trkpt lat="42.27839" lon="0.04148">
        <ele>984.1</ele>
        <time>2015-09-24T10:52:55Z</time>
      </trkpt>
      <trkpt lat="42.27842" lon="0.04148">
        <ele>984.3</ele>
        <time>2015-09-24T10:52:56Z</time>
      </trkpt>
      <trkpt lat="42.27846" lon="0.04149">
        <ele>984.5</ele>
        <time>2015-09-24T10:52:57Z</time>
      </trkpt>
      <trkpt lat="42.2785" lon="0.04149">
        <ele>984.6</ele>
        <time>2015-09-24T10:52:58Z</time>
      </trkpt>
      <trkpt lat="42.27853" lon="0.0415">
        <ele>984.7</ele>
        <time>2015-09-24T10:52:59Z</time>
      </trkpt>
      <trkpt lat="42.27857" lon="0.04152">
        <ele>984.8</ele>
        <time>2015-09-24T10:53:00Z</time>
      </trkpt>
      <trkpt lat="42.27861" lon="0.04153">
        <ele>984.9</ele>
        <time>2015-09-24T10:53:01Z</time>
      </trkpt>
      <trkpt lat="42.27865" lon="0.04153">
        <ele>985</ele>
        <time>2015-09-24T10:53:02Z</time>
      </trkpt>
      <trkpt lat="42.27869" lon="0.04153">
        <ele>985.3</ele>
        <time>2015-09-24T10:53:03Z</time>
      </trkpt>
      <trkpt lat="42.27873" lon="0.04153">
        <ele>985.5</ele>
        <time>2015-09-24T10:53:04Z</time>
      </trkpt>
      <trkpt lat="42.27877" lon="0.04153">
        <ele>985.6</ele>
        <time>2015-09-24T10:53:05Z</time>
      </trkpt>
      <trkpt lat="42.27881" lon="0.04152">
        <ele>985.6</ele>
        <time>2015-09-24T10:53:06Z</time>
      </trkpt>
      <trkpt lat="42.27886" lon="0.04151">
        <ele>985.5</ele>
        <time>2015-09-24T10:53:07Z</time>
      </trkpt>
      <trkpt lat="42.2789" lon="0.04149">
        <ele>985.6</ele>
        <time>2015-09-24T10:53:08Z</time>
      </trkpt>
      <trkpt lat="42.27894" lon="0.04148">
        <ele>985.6</ele>
        <time>2015-09-24T10:53:09Z</time>
      </trkpt>
      <trkpt lat="42.27898" lon="0.04146">
        <ele>985.7</ele>
        <time>2015-09-24T10:53:10Z</time>
      </trkpt>
      <trkpt lat="42.27902" lon="0.04144">
        <ele>985.8</ele>
        <time>2015-09-24T10:53:11Z</time>
      </trkpt>
      <trkpt lat="42.27907" lon="0.04142">
        <ele>985.9</ele>
        <time>2015-09-24T10:53:12Z</time>
      </trkpt>
      <trkpt lat="42.27911" lon="0.04141">
        <ele>986</ele>
        <time>2015-09-24T10:53:13Z</time>
      </trkpt>
      <trkpt lat="42.27915" lon="0.04139">
        <ele>986.1</ele>
        <time>2015-09-24T10:53:14Z</time>
      </trkpt>
      <trkpt lat="42.2792" lon="0.04133">
        <ele>986.8</ele>
        <time>2015-09-24T10:53:15Z</time>
      </trkpt>
      <trkpt lat="42.27925" lon="0.0413">
        <ele>987.1</ele>
        <time>2015-09-24T10:53:16Z</time>
      </trkpt>
      <trkpt lat="42.2793" lon="0.04126">
        <ele>987.5</ele>
        <time>2015-09-24T10:53:17Z</time>
      </trkpt>
      <trkpt lat="42.27935" lon="0.04123">
        <ele>987.9</ele>
        <time>2015-09-24T10:53:18Z</time>
      </trkpt>
      <trkpt lat="42.2794" lon="0.04119">
        <ele>988.3</ele>
        <time>2015-09-24T10:53:19Z</time>
      </trkpt>
      <trkpt lat="42.27944" lon="0.04116">
        <ele>988.7</ele>
        <time>2015-09-24T10:53:20Z</time>
      </trkpt>
      <trkpt lat="42.27948" lon="0.04113">
        <ele>989</ele>
        <time>2015-09-24T10:53:21Z</time>
      </trkpt>
      <trkpt lat="42.27952" lon="0.0411">
        <ele>989.4</ele>
        <time>2015-09-24T10:53:22Z</time>
      </trkpt>
      <trkpt lat="42.27956" lon="0.04107">
        <ele>989.6</ele>
        <time>2015-09-24T10:53:23Z</time>
      </trkpt>
      <trkpt lat="42.2796" lon="0.04105">
        <ele>989.5</ele>
        <time>2015-09-24T10:53:24Z</time>
      </trkpt>
      <trkpt lat="42.27964" lon="0.04102">
        <ele>989.1</ele>
        <time>2015-09-24T10:53:25Z</time>
      </trkpt>
      <trkpt lat="42.27967" lon="0.041">
        <ele>988.5</ele>
        <time>2015-09-24T10:53:26Z</time>
      </trkpt>
      <trkpt lat="42.2797" lon="0.04097">
        <ele>988.2</ele>
        <time>2015-09-24T10:53:27Z</time>
      </trkpt>
      <trkpt lat="42.27973" lon="0.04094">
        <ele>988</ele>
        <time>2015-09-24T10:53:28Z</time>
      </trkpt>
      <trkpt lat="42.27975" lon="0.04091">
        <ele>988</ele>
        <time>2015-09-24T10:53:29Z</time>
      </trkpt>
      <trkpt lat="42.27977" lon="0.04087">
        <ele>988.1</ele>
        <time>2015-09-24T10:53:30Z</time>
      </trkpt>
      <trkpt lat="42.27979" lon="0.04084">
        <ele>988.1</ele>
        <time>2015-09-24T10:53:31Z</time>
      </trkpt>
      <trkpt lat="42.27981" lon="0.0408">
        <ele>988.1</ele>
        <time>2015-09-24T10:53:32Z</time>
      </trkpt>
      <trkpt lat="42.27985" lon="0.04076">
        <ele>987.8</ele>
        <time>2015-09-24T10:53:34Z</time>
      </trkpt>
      <trkpt lat="42.27988" lon="0.04074">
        <ele>987.4</ele>
        <time>2015-09-24T10:53:36Z</time>
      </trkpt>
      <trkpt lat="42.2799" lon="0.0407">
        <ele>987.5</ele>
        <time>2015-09-24T10:53:38Z</time>
      </trkpt>
      <trkpt lat="42.27993" lon="0.04065">
        <ele>987.7</ele>
        <time>2015-09-24T10:53:40Z</time>
      </trkpt>
      <trkpt lat="42.27996" lon="0.0406">
        <ele>987.7</ele>
        <time>2015-09-24T10:53:42Z</time>
      </trkpt>
      <trkpt lat="42.28" lon="0.04056">
        <ele>987.4</ele>
        <time>2015-09-24T10:53:44Z</time>
      </trkpt>
      <trkpt lat="42.28003" lon="0.04052">
        <ele>987.1</ele>
        <time>2015-09-24T10:53:46Z</time>
      </trkpt>
      <trkpt lat="42.28008" lon="0.04046">
        <ele>987.1</ele>
        <time>2015-09-24T10:53:48Z</time>
      </trkpt>
      <trkpt lat="42.2801" lon="0.04043">
        <ele>986.9</ele>
        <time>2015-09-24T10:53:49Z</time>
      </trkpt>
      <trkpt lat="42.28013" lon="0.04041">
        <ele>986.6</ele>
        <time>2015-09-24T10:53:50Z</time>
      </trkpt>
      <trkpt lat="42.28017" lon="0.04039">
        <ele>986.1</ele>
        <time>2015-09-24T10:53:51Z</time>
      </trkpt>
      <trkpt lat="42.2802" lon="0.04037">
        <ele>985.6</ele>
        <time>2015-09-24T10:53:52Z</time>
      </trkpt>
      <trkpt lat="42.28023" lon="0.04035">
        <ele>985.2</ele>
        <time>2015-09-24T10:53:53Z</time>
      </trkpt>
      <trkpt lat="42.28026" lon="0.04033">
        <ele>985</ele>
        <time>2015-09-24T10:53:54Z</time>
      </trkpt>
      <trkpt lat="42.28028" lon="0.0403">
        <ele>985</ele>
        <time>2015-09-24T10:53:55Z</time>
      </trkpt>
      <trkpt lat="42.28031" lon="0.04024">
        <ele>985.2</ele>
        <time>2015-09-24T10:53:57Z</time>
      </trkpt>
      <trkpt lat="42.28035" lon="0.04019">
        <ele>985.3</ele>
        <time>2015-09-24T10:53:59Z</time>
      </trkpt>
      <trkpt lat="42.28037" lon="0.04016">
        <ele>985.3</ele>
        <time>2015-09-24T10:54:00Z</time>
      </trkpt>
      <trkpt lat="42.28039" lon="0.04013">
        <ele>985.3</ele>
        <time>2015-09-24T10:54:01Z</time>
      </trkpt>
      <trkpt lat="42.28042" lon="0.0401">
        <ele>985.3</ele>
        <time>2015-09-24T10:54:02Z</time>
      </trkpt>
      <trkpt lat="42.28045" lon="0.04006">
        <ele>985.5</ele>
        <time>2015-09-24T10:54:03Z</time>
      </trkpt>
      <trkpt lat="42.28047" lon="0.04003">
        <ele>985.7</ele>
        <time>2015-09-24T10:54:04Z</time>
      </trkpt>
      <trkpt lat="42.2805" lon="0.03999">
        <ele>985.9</ele>
        <time>2015-09-24T10:54:05Z</time>
      </trkpt>
      <trkpt lat="42.28053" lon="0.03997">
        <ele>985.8</ele>
        <time>2015-09-24T10:54:06Z</time>
      </trkpt>
      <trkpt lat="42.28057" lon="0.03995">
        <ele>985.6</ele>
        <time>2015-09-24T10:54:07Z</time>
      </trkpt>
      <trkpt lat="42.28061" lon="0.03993">
        <ele>985.3</ele>
        <time>2015-09-24T10:54:08Z</time>
      </trkpt>
      <trkpt lat="42.28065" lon="0.03992">
        <ele>984.9</ele>
        <time>2015-09-24T10:54:09Z</time>
      </trkpt>
      <trkpt lat="42.28069" lon="0.03991">
        <ele>984.5</ele>
        <time>2015-09-24T10:54:10Z</time>
      </trkpt>
      <trkpt lat="42.28073" lon="0.03991">
        <ele>984</ele>
        <time>2015-09-24T10:54:11Z</time>
      </trkpt>
      <trkpt lat="42.28076" lon="0.03992">
        <ele>983.3</ele>
        <time>2015-09-24T10:54:12Z</time>
      </trkpt>
      <trkpt lat="42.2808" lon="0.03995">
        <ele>982.2</ele>
        <time>2015-09-24T10:54:14Z</time>
      </trkpt>
      <trkpt lat="42.28084" lon="0.04">
        <ele>981</ele>
        <time>2015-09-24T10:54:16Z</time>
      </trkpt>
      <trkpt lat="42.28087" lon="0.04005">
        <ele>979.7</ele>
        <time>2015-09-24T10:54:18Z</time>
      </trkpt>
      <trkpt lat="42.28088" lon="0.04008">
        <ele>979</ele>
        <time>2015-09-24T10:54:19Z</time>
      </trkpt>
      <trkpt lat="42.2809" lon="0.04012">
        <ele>978.2</ele>
        <time>2015-09-24T10:54:20Z</time>
      </trkpt>
      <trkpt lat="42.28092" lon="0.04015">
        <ele>977.5</ele>
        <time>2015-09-24T10:54:21Z</time>
      </trkpt>
      <trkpt lat="42.28094" lon="0.04018">
        <ele>976.7</ele>
        <time>2015-09-24T10:54:22Z</time>
      </trkpt>
      <trkpt lat="42.28096" lon="0.04021">
        <ele>976</ele>
        <time>2015-09-24T10:54:23Z</time>
      </trkpt>
      <trkpt lat="42.28098" lon="0.04024">
        <ele>975.3</ele>
        <time>2015-09-24T10:54:24Z</time>
      </trkpt>
      <trkpt lat="42.281" lon="0.04027">
        <ele>974.6</ele>
        <time>2015-09-24T10:54:25Z</time>
      </trkpt>
      <trkpt lat="42.28102" lon="0.0403">
        <ele>973.9</ele>
        <time>2015-09-24T10:54:26Z</time>
      </trkpt>
      <trkpt lat="42.28104" lon="0.04033">
        <ele>973.2</ele>
        <time>2015-09-24T10:54:27Z</time>
      </trkpt>
      <trkpt lat="42.28107" lon="0.04038">
        <ele>971.9</ele>
        <time>2015-09-24T10:54:29Z</time>
      </trkpt>
      <trkpt lat="42.2811" lon="0.04044">
        <ele>970.7</ele>
        <time>2015-09-24T10:54:31Z</time>
      </trkpt>
      <trkpt lat="42.28115" lon="0.04048">
        <ele>969.6</ele>
        <time>2015-09-24T10:54:33Z</time>
      </trkpt>
      <trkpt lat="42.28118" lon="0.04049">
        <ele>968.9</ele>
        <time>2015-09-24T10:54:35Z</time>
      </trkpt>
      <trkpt lat="42.28122" lon="0.0405">
        <ele>968.4</ele>
        <time>2015-09-24T10:54:37Z</time>
      </trkpt>
      <trkpt lat="42.28125" lon="0.0405">
        <ele>968</ele>
        <time>2015-09-24T10:54:39Z</time>
      </trkpt>
      <trkpt lat="42.28128" lon="0.04047">
        <ele>968</ele>
        <time>2015-09-24T10:54:41Z</time>
      </trkpt>
      <trkpt lat="42.28131" lon="0.04042">
        <ele>968.1</ele>
        <time>2015-09-24T10:54:43Z</time>
      </trkpt>
      <trkpt lat="42.28135" lon="0.04038">
        <ele>968.3</ele>
        <time>2015-09-24T10:54:45Z</time>
      </trkpt>
      <trkpt lat="42.28138" lon="0.04033">
        <ele>968.6</ele>
        <time>2015-09-24T10:54:47Z</time>
      </trkpt>
      <trkpt lat="42.2814" lon="0.04031">
        <ele>968.6</ele>
        <time>2015-09-24T10:55:13Z</time>
      </trkpt>
      <trkpt lat="42.28143" lon="0.04027">
        <ele>969</ele>
        <time>2015-09-24T10:55:15Z</time>
      </trkpt>
      <trkpt lat="42.28146" lon="0.0402">
        <ele>969.7</ele>
        <time>2015-09-24T10:55:17Z</time>
      </trkpt>
      <trkpt lat="42.28148" lon="0.04017">
        <ele>970</ele>
        <time>2015-09-24T10:55:18Z</time>
      </trkpt>
      <trkpt lat="42.2815" lon="0.04013">
        <ele>970.4</ele>
        <time>2015-09-24T10:55:19Z</time>
      </trkpt>
      <trkpt lat="42.28152" lon="0.04011">
        <ele>970.7</ele>
        <time>2015-09-24T10:55:20Z</time>
      </trkpt>
      <trkpt lat="42.28154" lon="0.04008">
        <ele>970.9</ele>
        <time>2015-09-24T10:55:21Z</time>
      </trkpt>
      <trkpt lat="42.28156" lon="0.04005">
        <ele>971.1</ele>
        <time>2015-09-24T10:55:22Z</time>
      </trkpt>
      <trkpt lat="42.28158" lon="0.04002">
        <ele>971.5</ele>
        <time>2015-09-24T10:55:23Z</time>
      </trkpt>
      <trkpt lat="42.28159" lon="0.03998">
        <ele>972.1</ele>
        <time>2015-09-24T10:55:24Z</time>
      </trkpt>
      <trkpt lat="42.28159" lon="0.03995">
        <ele>972.7</ele>
        <time>2015-09-24T10:55:25Z</time>
      </trkpt>
      <trkpt lat="42.28159" lon="0.03991">
        <ele>973.3</ele>
        <time>2015-09-24T10:55:26Z</time>
      </trkpt>
      <trkpt lat="42.2816" lon="0.03986">
        <ele>974</ele>
        <time>2015-09-24T10:55:27Z</time>
      </trkpt>
      <trkpt lat="42.28162" lon="0.03982">
        <ele>974.7</ele>
        <time>2015-09-24T10:55:28Z</time>
      </trkpt>
      <trkpt lat="42.28163" lon="0.03977">
        <ele>975.4</ele>
        <time>2015-09-24T10:55:29Z</time>
      </trkpt>
      <trkpt lat="42.28165" lon="0.03974">
        <ele>975.9</ele>
        <time>2015-09-24T10:55:30Z</time>
      </trkpt>
      <trkpt lat="42.28167" lon="0.0397">
        <ele>976.4</ele>
        <time>2015-09-24T10:55:31Z</time>
      </trkpt>
      <trkpt lat="42.28169" lon="0.03966">
        <ele>976.9</ele>
        <time>2015-09-24T10:55:32Z</time>
      </trkpt>
      <trkpt lat="42.28171" lon="0.03963">
        <ele>977.4</ele>
        <time>2015-09-24T10:55:33Z</time>
      </trkpt>
      <trkpt lat="42.28172" lon="0.03959">
        <ele>978.1</ele>
        <time>2015-09-24T10:55:35Z</time>
      </trkpt>
      <trkpt lat="42.28174" lon="0.03955">
        <ele>978.7</ele>
        <time>2015-09-24T10:55:37Z</time>
      </trkpt>
      <trkpt lat="42.28176" lon="0.03951">
        <ele>979.4</ele>
        <time>2015-09-24T10:55:39Z</time>
      </trkpt>
      <trkpt lat="42.28178" lon="0.03946">
        <ele>980.3</ele>
        <time>2015-09-24T10:55:41Z</time>
      </trkpt>
      <trkpt lat="42.28181" lon="0.03942">
        <ele>981.2</ele>
        <time>2015-09-24T10:55:43Z</time>
      </trkpt>
      <trkpt lat="42.28183" lon="0.03939">
        <ele>981.7</ele>
        <time>2015-09-24T10:55:44Z</time>
      </trkpt>
      <trkpt lat="42.28185" lon="0.03936">
        <ele>982.2</ele>
        <time>2015-09-24T10:55:45Z</time>
      </trkpt>
      <trkpt lat="42.28187" lon="0.03932">
        <ele>983</ele>
        <time>2015-09-24T10:55:46Z</time>
      </trkpt>
      <trkpt lat="42.2819" lon="0.03928">
        <ele>983.8</ele>
        <time>2015-09-24T10:55:47Z</time>
      </trkpt>
      <trkpt lat="42.28193" lon="0.03924">
        <ele>984.6</ele>
        <time>2015-09-24T10:55:48Z</time>
      </trkpt>
      <trkpt lat="42.28196" lon="0.0392">
        <ele>985.4</ele>
        <time>2015-09-24T10:55:49Z</time>
      </trkpt>
      <trkpt lat="42.28199" lon="0.03916">
        <ele>986.3</ele>
        <time>2015-09-24T10:55:50Z</time>
      </trkpt>
      <trkpt lat="42.28202" lon="0.03912">
        <ele>987.2</ele>
        <time>2015-09-24T10:55:51Z</time>
      </trkpt>
      <trkpt lat="42.28206" lon="0.03908">
        <ele>988.1</ele>
        <time>2015-09-24T10:55:52Z</time>
      </trkpt>
      <trkpt lat="42.2821" lon="0.03904">
        <ele>988.3</ele>
        <time>2015-09-24T10:55:53Z</time>
      </trkpt>
      <trkpt lat="42.28214" lon="0.03901">
        <ele>987.6</ele>
        <time>2015-09-24T10:55:54Z</time>
      </trkpt>
      <trkpt lat="42.2822" lon="0.03897">
        <ele>986.5</ele>
        <time>2015-09-24T10:55:55Z</time>
      </trkpt>
      <trkpt lat="42.28224" lon="0.03893">
        <ele>985.9</ele>
        <time>2015-09-24T10:55:56Z</time>
      </trkpt>
      <trkpt lat="42.28229" lon="0.0389">
        <ele>985.1</ele>
        <time>2015-09-24T10:55:57Z</time>
      </trkpt>
      <trkpt lat="42.28234" lon="0.03887">
        <ele>984</ele>
        <time>2015-09-24T10:55:58Z</time>
      </trkpt>
      <trkpt lat="42.28239" lon="0.03884">
        <ele>983.1</ele>
        <time>2015-09-24T10:55:59Z</time>
      </trkpt>
      <trkpt lat="42.28244" lon="0.0388">
        <ele>982.5</ele>
        <time>2015-09-24T10:56:00Z</time>
      </trkpt>
      <trkpt lat="42.28249" lon="0.03876">
        <ele>982</ele>
        <time>2015-09-24T10:56:01Z</time>
      </trkpt>
      <trkpt lat="42.28254" lon="0.03872">
        <ele>981.4</ele>
        <time>2015-09-24T10:56:02Z</time>
      </trkpt>
      <trkpt lat="42.28258" lon="0.03869">
        <ele>980.8</ele>
        <time>2015-09-24T10:56:03Z</time>
      </trkpt>
      <trkpt lat="42.28263" lon="0.03864">
        <ele>980.6</ele>
        <time>2015-09-24T10:56:04Z</time>
      </trkpt>
      <trkpt lat="42.28266" lon="0.03861">
        <ele>980.4</ele>
        <time>2015-09-24T10:56:05Z</time>
      </trkpt>
      <trkpt lat="42.2827" lon="0.03856">
        <ele>980.4</ele>
        <time>2015-09-24T10:56:06Z</time>
      </trkpt>
      <trkpt lat="42.28274" lon="0.03853">
        <ele>980.1</ele>
        <time>2015-09-24T10:56:07Z</time>
      </trkpt>
      <trkpt lat="42.28278" lon="0.03848">
        <ele>980.1</ele>
        <time>2015-09-24T10:56:08Z</time>
      </trkpt>
      <trkpt lat="42.28282" lon="0.03844">
        <ele>980</ele>
        <time>2015-09-24T10:56:09Z</time>
      </trkpt>
      <trkpt lat="42.28286" lon="0.03842">
        <ele>979.3</ele>
        <time>2015-09-24T10:56:10Z</time>
      </trkpt>
      <trkpt lat="42.2829" lon="0.03838">
        <ele>979.2</ele>
        <time>2015-09-24T10:56:11Z</time>
      </trkpt>
      <trkpt lat="42.28294" lon="0.03834">
        <ele>978.8</ele>
        <time>2015-09-24T10:56:12Z</time>
      </trkpt>
      <trkpt lat="42.28297" lon="0.0383">
        <ele>978.1</ele>
        <time>2015-09-24T10:56:13Z</time>
      </trkpt>
      <trkpt lat="42.28301" lon="0.03825">
        <ele>977.5</ele>
        <time>2015-09-24T10:56:14Z</time>
      </trkpt>
      <trkpt lat="42.28305" lon="0.03821">
        <ele>976.9</ele>
        <time>2015-09-24T10:56:15Z</time>
      </trkpt>
      <trkpt lat="42.28309" lon="0.03817">
        <ele>976</ele>
        <time>2015-09-24T10:56:16Z</time>
      </trkpt>
      <trkpt lat="42.28312" lon="0.03813">
        <ele>975.3</ele>
        <time>2015-09-24T10:56:17Z</time>
      </trkpt>
      <trkpt lat="42.28316" lon="0.03808">
        <ele>975</ele>
        <time>2015-09-24T10:56:18Z</time>
      </trkpt>
      <trkpt lat="42.28319" lon="0.03805">
        <ele>974.3</ele>
        <time>2015-09-24T10:56:19Z</time>
      </trkpt>
      <trkpt lat="42.28323" lon="0.03801">
        <ele>973.6</ele>
        <time>2015-09-24T10:56:20Z</time>
      </trkpt>
      <trkpt lat="42.28326" lon="0.03796">
        <ele>972.9</ele>
        <time>2015-09-24T10:56:21Z</time>
      </trkpt>
      <trkpt lat="42.2833" lon="0.03792">
        <ele>972.2</ele>
        <time>2015-09-24T10:56:22Z</time>
      </trkpt>
      <trkpt lat="42.28333" lon="0.03787">
        <ele>971.6</ele>
        <time>2015-09-24T10:56:23Z</time>
      </trkpt>
      <trkpt lat="42.28337" lon="0.03784">
        <ele>970.6</ele>
        <time>2015-09-24T10:56:24Z</time>
      </trkpt>
      <trkpt lat="42.2834" lon="0.03779">
        <ele>970.1</ele>
        <time>2015-09-24T10:56:25Z</time>
      </trkpt>
      <trkpt lat="42.28343" lon="0.03775">
        <ele>969.7</ele>
        <time>2015-09-24T10:56:26Z</time>
      </trkpt>
      <trkpt lat="42.28346" lon="0.0377">
        <ele>969.1</ele>
        <time>2015-09-24T10:56:27Z</time>
      </trkpt>
      <trkpt lat="42.28349" lon="0.03766">
        <ele>968.4</ele>
        <time>2015-09-24T10:56:28Z</time>
      </trkpt>
      <trkpt lat="42.28352" lon="0.03763">
        <ele>967.8</ele>
        <time>2015-09-24T10:56:29Z</time>
      </trkpt>
      <trkpt lat="42.28355" lon="0.03759">
        <ele>967</ele>
        <time>2015-09-24T10:56:30Z</time>
      </trkpt>
      <trkpt lat="42.28359" lon="0.03756">
        <ele>966.1</ele>
        <time>2015-09-24T10:56:31Z</time>
      </trkpt>
      <trkpt lat="42.28361" lon="0.03753">
        <ele>965.6</ele>
        <time>2015-09-24T10:56:32Z</time>
      </trkpt>
      <trkpt lat="42.28364" lon="0.03748">
        <ele>965</ele>
        <time>2015-09-24T10:56:34Z</time>
      </trkpt>
      <trkpt lat="42.28366" lon="0.03745">
        <ele>964.9</ele>
        <time>2015-09-24T10:56:45Z</time>
      </trkpt>
      <trkpt lat="42.28367" lon="0.03742">
        <ele>965</ele>
        <time>2015-09-24T10:56:54Z</time>
      </trkpt>
      <trkpt lat="42.28369" lon="0.03738">
        <ele>965.1</ele>
        <time>2015-09-24T10:59:12Z</time>
      </trkpt>
      <trkpt lat="42.28371" lon="0.03736">
        <ele>964.5</ele>
        <time>2015-09-24T10:59:13Z</time>
      </trkpt>
      <trkpt lat="42.28374" lon="0.03733">
        <ele>963.9</ele>
        <time>2015-09-24T10:59:14Z</time>
      </trkpt>
      <trkpt lat="42.28376" lon="0.0373">
        <ele>963.3</ele>
        <time>2015-09-24T10:59:15Z</time>
      </trkpt>
      <trkpt lat="42.28379" lon="0.03727">
        <ele>962.7</ele>
        <time>2015-09-24T10:59:16Z</time>
      </trkpt>
      <trkpt lat="42.28382" lon="0.03724">
        <ele>962.1</ele>
        <time>2015-09-24T10:59:17Z</time>
      </trkpt>
      <trkpt lat="42.28384" lon="0.03721">
        <ele>961.7</ele>
        <time>2015-09-24T10:59:18Z</time>
      </trkpt>
      <trkpt lat="42.28387" lon="0.03718">
        <ele>961.3</ele>
        <time>2015-09-24T10:59:19Z</time>
      </trkpt>
      <trkpt lat="42.28389" lon="0.03714">
        <ele>961</ele>
        <time>2015-09-24T10:59:20Z</time>
      </trkpt>
      <trkpt lat="42.28392" lon="0.03709">
        <ele>960.8</ele>
        <time>2015-09-24T10:59:21Z</time>
      </trkpt>
      <trkpt lat="42.28394" lon="0.03705">
        <ele>960.8</ele>
        <time>2015-09-24T10:59:22Z</time>
      </trkpt>
      <trkpt lat="42.28397" lon="0.037">
        <ele>960.9</ele>
        <time>2015-09-24T10:59:23Z</time>
      </trkpt>
      <trkpt lat="42.28399" lon="0.03696">
        <ele>961.1</ele>
        <time>2015-09-24T10:59:24Z</time>
      </trkpt>
      <trkpt lat="42.28401" lon="0.03691">
        <ele>961.2</ele>
        <time>2015-09-24T10:59:25Z</time>
      </trkpt>
      <trkpt lat="42.28403" lon="0.03687">
        <ele>961.2</ele>
        <time>2015-09-24T10:59:26Z</time>
      </trkpt>
      <trkpt lat="42.28405" lon="0.03683">
        <ele>961.2</ele>
        <time>2015-09-24T10:59:27Z</time>
      </trkpt>
      <trkpt lat="42.28408" lon="0.0368">
        <ele>960.5</ele>
        <time>2015-09-24T10:59:29Z</time>
      </trkpt>
      <trkpt lat="42.28412" lon="0.03679">
        <ele>958.7</ele>
        <time>2015-09-24T10:59:31Z</time>
      </trkpt>
      <trkpt lat="42.28417" lon="0.03678">
        <ele>956.8</ele>
        <time>2015-09-24T10:59:33Z</time>
      </trkpt>
      <trkpt lat="42.28422" lon="0.03676">
        <ele>954.8</ele>
        <time>2015-09-24T10:59:35Z</time>
      </trkpt>
      <trkpt lat="42.28425" lon="0.03674">
        <ele>953.6</ele>
        <time>2015-09-24T10:59:36Z</time>
      </trkpt>
      <trkpt lat="42.28429" lon="0.03671">
        <ele>952.5</ele>
        <time>2015-09-24T10:59:37Z</time>
      </trkpt>
      <trkpt lat="42.28432" lon="0.03668">
        <ele>951.8</ele>
        <time>2015-09-24T10:59:38Z</time>
      </trkpt>
      <trkpt lat="42.28435" lon="0.03663">
        <ele>951.4</ele>
        <time>2015-09-24T10:59:39Z</time>
      </trkpt>
      <trkpt lat="42.28438" lon="0.03657">
        <ele>951.3</ele>
        <time>2015-09-24T10:59:40Z</time>
      </trkpt>
      <trkpt lat="42.2844" lon="0.03652">
        <ele>951.3</ele>
        <time>2015-09-24T10:59:41Z</time>
      </trkpt>
      <trkpt lat="42.28443" lon="0.03647">
        <ele>951.3</ele>
        <time>2015-09-24T10:59:42Z</time>
      </trkpt>
      <trkpt lat="42.28445" lon="0.03642">
        <ele>951</ele>
        <time>2015-09-24T10:59:43Z</time>
      </trkpt>
      <trkpt lat="42.28448" lon="0.03639">
        <ele>950.3</ele>
        <time>2015-09-24T10:59:44Z</time>
      </trkpt>
      <trkpt lat="42.28451" lon="0.03638">
        <ele>949</ele>
        <time>2015-09-24T10:59:45Z</time>
      </trkpt>
      <trkpt lat="42.28454" lon="0.03639">
        <ele>947.4</ele>
        <time>2015-09-24T10:59:46Z</time>
      </trkpt>
      <trkpt lat="42.28456" lon="0.03641">
        <ele>945.7</ele>
        <time>2015-09-24T10:59:47Z</time>
      </trkpt>
      <trkpt lat="42.28458" lon="0.03644">
        <ele>944.1</ele>
        <time>2015-09-24T10:59:48Z</time>
      </trkpt>
      <trkpt lat="42.28461" lon="0.03648">
        <ele>942.8</ele>
        <time>2015-09-24T10:59:50Z</time>
      </trkpt>
      <trkpt lat="42.28463" lon="0.03651">
        <ele>942</ele>
        <time>2015-09-24T10:59:52Z</time>
      </trkpt>
      <trkpt lat="42.28464" lon="0.03654">
        <ele>941.1</ele>
        <time>2015-09-24T10:59:54Z</time>
      </trkpt>
      <trkpt lat="42.28466" lon="0.03658">
        <ele>940.1</ele>
        <time>2015-09-24T10:59:56Z</time>
      </trkpt>
      <trkpt lat="42.28468" lon="0.03662">
        <ele>938.9</ele>
        <time>2015-09-24T10:59:58Z</time>
      </trkpt>
      <trkpt lat="42.2847" lon="0.03667">
        <ele>937.8</ele>
        <time>2015-09-24T11:00:00Z</time>
      </trkpt>
      <trkpt lat="42.28472" lon="0.03671">
        <ele>936.8</ele>
        <time>2015-09-24T11:00:02Z</time>
      </trkpt>
      <trkpt lat="42.28473" lon="0.03675">
        <ele>935.9</ele>
        <time>2015-09-24T11:00:06Z</time>
      </trkpt>
      <trkpt lat="42.28475" lon="0.03678">
        <ele>935.1</ele>
        <time>2015-09-24T11:00:10Z</time>
      </trkpt>
      <trkpt lat="42.28477" lon="0.03682">
        <ele>934</ele>
        <time>2015-09-24T11:00:15Z</time>
      </trkpt>
      <trkpt lat="42.2848" lon="0.03686">
        <ele>932.8</ele>
        <time>2015-09-24T11:00:17Z</time>
      </trkpt>
      <trkpt lat="42.28483" lon="0.0369">
        <ele>931.7</ele>
        <time>2015-09-24T11:00:19Z</time>
      </trkpt>
      <trkpt lat="42.28485" lon="0.03694">
        <ele>930.8</ele>
        <time>2015-09-24T11:00:21Z</time>
      </trkpt>
      <trkpt lat="42.28489" lon="0.03696">
        <ele>930.1</ele>
        <time>2015-09-24T11:00:23Z</time>
      </trkpt>
      <trkpt lat="42.28492" lon="0.03697">
        <ele>929.5</ele>
        <time>2015-09-24T11:00:25Z</time>
      </trkpt>
      <trkpt lat="42.28496" lon="0.03699">
        <ele>928.7</ele>
        <time>2015-09-24T11:00:27Z</time>
      </trkpt>
      <trkpt lat="42.285" lon="0.03702">
        <ele>927.8</ele>
        <time>2015-09-24T11:00:29Z</time>
      </trkpt>
      <trkpt lat="42.28505" lon="0.03705">
        <ele>926.8</ele>
        <time>2015-09-24T11:00:31Z</time>
      </trkpt>
      <trkpt lat="42.28508" lon="0.03707">
        <ele>926.2</ele>
        <time>2015-09-24T11:00:32Z</time>
      </trkpt>
      <trkpt lat="42.2851" lon="0.03709">
        <ele>925.6</ele>
        <time>2015-09-24T11:00:33Z</time>
      </trkpt>
      <trkpt lat="42.28513" lon="0.03711">
        <ele>925</ele>
        <time>2015-09-24T11:00:34Z</time>
      </trkpt>
      <trkpt lat="42.28515" lon="0.03714">
        <ele>924.4</ele>
        <time>2015-09-24T11:00:35Z</time>
      </trkpt>
      <trkpt lat="42.28518" lon="0.03717">
        <ele>923.7</ele>
        <time>2015-09-24T11:00:36Z</time>
      </trkpt>
      <trkpt lat="42.2852" lon="0.03719">
        <ele>923.2</ele>
        <time>2015-09-24T11:00:37Z</time>
      </trkpt>
      <trkpt lat="42.28523" lon="0.03722">
        <ele>922.7</ele>
        <time>2015-09-24T11:00:38Z</time>
      </trkpt>
      <trkpt lat="42.28525" lon="0.03724">
        <ele>922.2</ele>
        <time>2015-09-24T11:00:39Z</time>
      </trkpt>
      <trkpt lat="42.28528" lon="0.03726">
        <ele>921.8</ele>
        <time>2015-09-24T11:00:41Z</time>
      </trkpt>
      <trkpt lat="42.28529" lon="0.03729">
        <ele>921.2</ele>
        <time>2015-09-24T11:00:45Z</time>
      </trkpt>
      <trkpt lat="42.28532" lon="0.03733">
        <ele>920.6</ele>
        <time>2015-09-24T11:00:47Z</time>
      </trkpt>
      <trkpt lat="42.28535" lon="0.03736">
        <ele>920.1</ele>
        <time>2015-09-24T11:00:49Z</time>
      </trkpt>
      <trkpt lat="42.28538" lon="0.0374">
        <ele>919.4</ele>
        <time>2015-09-24T11:00:51Z</time>
      </trkpt>
      <trkpt lat="42.28541" lon="0.03743">
        <ele>918.9</ele>
        <time>2015-09-24T11:00:52Z</time>
      </trkpt>
      <trkpt lat="42.28543" lon="0.03745">
        <ele>918.7</ele>
        <time>2015-09-24T11:00:53Z</time>
      </trkpt>
      <trkpt lat="42.28546" lon="0.03747">
        <ele>918.7</ele>
        <time>2015-09-24T11:00:54Z</time>
      </trkpt>
      <trkpt lat="42.2855" lon="0.03751">
        <ele>918.8</ele>
        <time>2015-09-24T11:00:56Z</time>
      </trkpt>
      <trkpt lat="42.28554" lon="0.03755">
        <ele>918.6</ele>
        <time>2015-09-24T11:00:58Z</time>
      </trkpt>
      <trkpt lat="42.28556" lon="0.03759">
        <ele>918.4</ele>
        <time>2015-09-24T11:00:59Z</time>
      </trkpt>
      <trkpt lat="42.28558" lon="0.03763">
        <ele>918.1</ele>
        <time>2015-09-24T11:01:00Z</time>
      </trkpt>
      <trkpt lat="42.2856" lon="0.03767">
        <ele>917.8</ele>
        <time>2015-09-24T11:01:01Z</time>
      </trkpt>
      <trkpt lat="42.28564" lon="0.0377">
        <ele>917.7</ele>
        <time>2015-09-24T11:01:02Z</time>
      </trkpt>
      <trkpt lat="42.28567" lon="0.03773">
        <ele>917.8</ele>
        <time>2015-09-24T11:01:03Z</time>
      </trkpt>
      <trkpt lat="42.2857" lon="0.03774">
        <ele>917.9</ele>
        <time>2015-09-24T11:01:04Z</time>
      </trkpt>
      <trkpt lat="42.28573" lon="0.03777">
        <ele>917.9</ele>
        <time>2015-09-24T11:01:05Z</time>
      </trkpt>
      <trkpt lat="42.28575" lon="0.0378">
        <ele>917.7</ele>
        <time>2015-09-24T11:01:06Z</time>
      </trkpt>
      <trkpt lat="42.28578" lon="0.03782">
        <ele>917.7</ele>
        <time>2015-09-24T11:01:07Z</time>
      </trkpt>
      <trkpt lat="42.28582" lon="0.03783">
        <ele>917.9</ele>
        <time>2015-09-24T11:01:08Z</time>
      </trkpt>
      <trkpt lat="42.28585" lon="0.03784">
        <ele>918.2</ele>
        <time>2015-09-24T11:01:09Z</time>
      </trkpt>
      <trkpt lat="42.2859" lon="0.03784">
        <ele>918.6</ele>
        <time>2015-09-24T11:01:10Z</time>
      </trkpt>
      <trkpt lat="42.28599" lon="0.03783">
        <ele>919.6</ele>
        <time>2015-09-24T11:01:11Z</time>
      </trkpt>
      <trkpt lat="42.28603" lon="0.03784">
        <ele>920</ele>
        <time>2015-09-24T11:01:12Z</time>
      </trkpt>
      <trkpt lat="42.28608" lon="0.03783">
        <ele>920.6</ele>
        <time>2015-09-24T11:01:13Z</time>
      </trkpt>
      <trkpt lat="42.28612" lon="0.03783">
        <ele>920.9</ele>
        <time>2015-09-24T11:01:14Z</time>
      </trkpt>
      <trkpt lat="42.28616" lon="0.03781">
        <ele>921.5</ele>
        <time>2015-09-24T11:01:15Z</time>
      </trkpt>
      <trkpt lat="42.2862" lon="0.03782">
        <ele>921.8</ele>
        <time>2015-09-24T11:01:16Z</time>
      </trkpt>
      <trkpt lat="42.28624" lon="0.03783">
        <ele>922.1</ele>
        <time>2015-09-24T11:01:17Z</time>
      </trkpt>
      <trkpt lat="42.28627" lon="0.03784">
        <ele>922.1</ele>
        <time>2015-09-24T11:01:18Z</time>
      </trkpt>
      <trkpt lat="42.2863" lon="0.03784">
        <ele>922.1</ele>
        <time>2015-09-24T11:01:19Z</time>
      </trkpt>
      <trkpt lat="42.28633" lon="0.03785">
        <ele>921.9</ele>
        <time>2015-09-24T11:01:20Z</time>
      </trkpt>
      <trkpt lat="42.28636" lon="0.03786">
        <ele>921.9</ele>
        <time>2015-09-24T11:01:21Z</time>
      </trkpt>
      <trkpt lat="42.28641" lon="0.03788">
        <ele>921.7</ele>
        <time>2015-09-24T11:01:23Z</time>
      </trkpt>
      <trkpt lat="42.28645" lon="0.03789">
        <ele>921.7</ele>
        <time>2015-09-24T11:01:25Z</time>
      </trkpt>
      <trkpt lat="42.2865" lon="0.03788">
        <ele>921.8</ele>
        <time>2015-09-24T11:01:27Z</time>
      </trkpt>
      <trkpt lat="42.28654" lon="0.03789">
        <ele>921.7</ele>
        <time>2015-09-24T11:01:29Z</time>
      </trkpt>
      <trkpt lat="42.28659" lon="0.0379">
        <ele>921.7</ele>
        <time>2015-09-24T11:01:31Z</time>
      </trkpt>
      <trkpt lat="42.28662" lon="0.03789">
        <ele>921.8</ele>
        <time>2015-09-24T11:01:32Z</time>
      </trkpt>
      <trkpt lat="42.28665" lon="0.03789">
        <ele>921.9</ele>
        <time>2015-09-24T11:01:33Z</time>
      </trkpt>
      <trkpt lat="42.28668" lon="0.03789">
        <ele>921.9</ele>
        <time>2015-09-24T11:01:34Z</time>
      </trkpt>
      <trkpt lat="42.28671" lon="0.0379">
        <ele>921.8</ele>
        <time>2015-09-24T11:01:35Z</time>
      </trkpt>
      <trkpt lat="42.28675" lon="0.03791">
        <ele>921.7</ele>
        <time>2015-09-24T11:01:36Z</time>
      </trkpt>
      <trkpt lat="42.28678" lon="0.03792">
        <ele>921.5</ele>
        <time>2015-09-24T11:01:37Z</time>
      </trkpt>
      <trkpt lat="42.28682" lon="0.03793">
        <ele>921.4</ele>
        <time>2015-09-24T11:01:38Z</time>
      </trkpt>
      <trkpt lat="42.28686" lon="0.03793">
        <ele>921.4</ele>
        <time>2015-09-24T11:01:39Z</time>
      </trkpt>
      <trkpt lat="42.2869" lon="0.03793">
        <ele>921.6</ele>
        <time>2015-09-24T11:01:40Z</time>
      </trkpt>
      <trkpt lat="42.28696" lon="0.03792">
        <ele>921.7</ele>
        <time>2015-09-24T11:01:41Z</time>
      </trkpt>
      <trkpt lat="42.28701" lon="0.03792">
        <ele>921.9</ele>
        <time>2015-09-24T11:01:42Z</time>
      </trkpt>
      <trkpt lat="42.28707" lon="0.03788">
        <ele>922.6</ele>
        <time>2015-09-24T11:01:43Z</time>
      </trkpt>
      <trkpt lat="42.28712" lon="0.03783">
        <ele>922.5</ele>
        <time>2015-09-24T11:01:44Z</time>
      </trkpt>
      <trkpt lat="42.28717" lon="0.03778">
        <ele>922</ele>
        <time>2015-09-24T11:01:45Z</time>
      </trkpt>
      <trkpt lat="42.28721" lon="0.03772">
        <ele>921.7</ele>
        <time>2015-09-24T11:01:46Z</time>
      </trkpt>
      <trkpt lat="42.28725" lon="0.03767">
        <ele>921.3</ele>
        <time>2015-09-24T11:01:47Z</time>
      </trkpt>
      <trkpt lat="42.28729" lon="0.03763">
        <ele>921</ele>
        <time>2015-09-24T11:01:48Z</time>
      </trkpt>
      <trkpt lat="42.28731" lon="0.03758">
        <ele>921.2</ele>
        <time>2015-09-24T11:01:49Z</time>
      </trkpt>
      <trkpt lat="42.28733" lon="0.03753">
        <ele>921.7</ele>
        <time>2015-09-24T11:01:50Z</time>
      </trkpt>
      <trkpt lat="42.28736" lon="0.03747">
        <ele>921.9</ele>
        <time>2015-09-24T11:01:51Z</time>
      </trkpt>
      <trkpt lat="42.28738" lon="0.0374">
        <ele>922.4</ele>
        <time>2015-09-24T11:01:52Z</time>
      </trkpt>
      <trkpt lat="42.2874" lon="0.03734">
        <ele>922.8</ele>
        <time>2015-09-24T11:01:53Z</time>
      </trkpt>
      <trkpt lat="42.28743" lon="0.03727">
        <ele>923.2</ele>
        <time>2015-09-24T11:01:54Z</time>
      </trkpt>
      <trkpt lat="42.28746" lon="0.0372">
        <ele>923.7</ele>
        <time>2015-09-24T11:01:55Z</time>
      </trkpt>
      <trkpt lat="42.28749" lon="0.03712">
        <ele>924.2</ele>
        <time>2015-09-24T11:01:56Z</time>
      </trkpt>
      <trkpt lat="42.2875" lon="0.03704">
        <ele>925.2</ele>
        <time>2015-09-24T11:01:57Z</time>
      </trkpt>
      <trkpt lat="42.28752" lon="0.03696">
        <ele>926.2</ele>
        <time>2015-09-24T11:01:58Z</time>
      </trkpt>
      <trkpt lat="42.28754" lon="0.03688">
        <ele>927.1</ele>
        <time>2015-09-24T11:01:59Z</time>
      </trkpt>
      <trkpt lat="42.28758" lon="0.03682">
        <ele>927.3</ele>
        <time>2015-09-24T11:02:00Z</time>
      </trkpt>
      <trkpt lat="42.28761" lon="0.03678">
        <ele>927</ele>
        <time>2015-09-24T11:02:01Z</time>
      </trkpt>
      <trkpt lat="42.28765" lon="0.03675">
        <ele>926.5</ele>
        <time>2015-09-24T11:02:02Z</time>
      </trkpt>
      <trkpt lat="42.28769" lon="0.03671">
        <ele>926.1</ele>
        <time>2015-09-24T11:02:03Z</time>
      </trkpt>
      <trkpt lat="42.28772" lon="0.03667">
        <ele>925.7</ele>
        <time>2015-09-24T11:02:04Z</time>
      </trkpt>
      <trkpt lat="42.28777" lon="0.03662">
        <ele>925.3</ele>
        <time>2015-09-24T11:02:05Z</time>
      </trkpt>
      <trkpt lat="42.2878" lon="0.03657">
        <ele>925.2</ele>
        <time>2015-09-24T11:02:06Z</time>
      </trkpt>
      <trkpt lat="42.28784" lon="0.03652">
        <ele>925.1</ele>
        <time>2015-09-24T11:02:07Z</time>
      </trkpt>
      <trkpt lat="42.28788" lon="0.03647">
        <ele>924.8</ele>
        <time>2015-09-24T11:02:08Z</time>
      </trkpt>
      <trkpt lat="42.28792" lon="0.03643">
        <ele>924.4</ele>
        <time>2015-09-24T11:02:09Z</time>
      </trkpt>
      <trkpt lat="42.28797" lon="0.03639">
        <ele>923.4</ele>
        <time>2015-09-24T11:02:10Z</time>
      </trkpt>
      <trkpt lat="42.288" lon="0.03636">
        <ele>922.6</ele>
        <time>2015-09-24T11:02:11Z</time>
      </trkpt>
      <trkpt lat="42.28804" lon="0.03632">
        <ele>921.8</ele>
        <time>2015-09-24T11:02:12Z</time>
      </trkpt>
      <trkpt lat="42.28806" lon="0.03628">
        <ele>921.6</ele>
        <time>2015-09-24T11:02:13Z</time>
      </trkpt>
      <trkpt lat="42.28809" lon="0.03624">
        <ele>921.3</ele>
        <time>2015-09-24T11:02:14Z</time>
      </trkpt>
      <trkpt lat="42.28813" lon="0.03618">
        <ele>921.4</ele>
        <time>2015-09-24T11:02:15Z</time>
      </trkpt>
      <trkpt lat="42.28816" lon="0.03612">
        <ele>921.1</ele>
        <time>2015-09-24T11:02:16Z</time>
      </trkpt>
      <trkpt lat="42.2882" lon="0.03607">
        <ele>920.7</ele>
        <time>2015-09-24T11:02:17Z</time>
      </trkpt>
      <trkpt lat="42.28825" lon="0.03601">
        <ele>920.4</ele>
        <time>2015-09-24T11:02:18Z</time>
      </trkpt>
      <trkpt lat="42.28829" lon="0.03594">
        <ele>920.3</ele>
        <time>2015-09-24T11:02:19Z</time>
      </trkpt>
      <trkpt lat="42.28833" lon="0.03588">
        <ele>920</ele>
        <time>2015-09-24T11:02:20Z</time>
      </trkpt>
      <trkpt lat="42.28837" lon="0.03583">
        <ele>919.5</ele>
        <time>2015-09-24T11:02:21Z</time>
      </trkpt>
      <trkpt lat="42.28842" lon="0.03578">
        <ele>918.7</ele>
        <time>2015-09-24T11:02:22Z</time>
      </trkpt>
      <trkpt lat="42.28847" lon="0.03574">
        <ele>917.7</ele>
        <time>2015-09-24T11:02:23Z</time>
      </trkpt>
      <trkpt lat="42.28851" lon="0.0357">
        <ele>917</ele>
        <time>2015-09-24T11:02:24Z</time>
      </trkpt>
      <trkpt lat="42.28855" lon="0.03565">
        <ele>916.6</ele>
        <time>2015-09-24T11:02:25Z</time>
      </trkpt>
      <trkpt lat="42.28859" lon="0.03559">
        <ele>916.6</ele>
        <time>2015-09-24T11:02:26Z</time>
      </trkpt>
      <trkpt lat="42.28862" lon="0.03551">
        <ele>917</ele>
        <time>2015-09-24T11:02:27Z</time>
      </trkpt>
      <trkpt lat="42.28866" lon="0.03544">
        <ele>917.3</ele>
        <time>2015-09-24T11:02:28Z</time>
      </trkpt>
      <trkpt lat="42.28869" lon="0.03536">
        <ele>917.4</ele>
        <time>2015-09-24T11:02:29Z</time>
      </trkpt>
      <trkpt lat="42.28872" lon="0.03529">
        <ele>917.2</ele>
        <time>2015-09-24T11:02:30Z</time>
      </trkpt>
      <trkpt lat="42.28877" lon="0.03522">
        <ele>916.7</ele>
        <time>2015-09-24T11:02:31Z</time>
      </trkpt>
      <trkpt lat="42.28881" lon="0.03514">
        <ele>916.2</ele>
        <time>2015-09-24T11:02:32Z</time>
      </trkpt>
      <trkpt lat="42.28885" lon="0.03507">
        <ele>915.6</ele>
        <time>2015-09-24T11:02:33Z</time>
      </trkpt>
      <trkpt lat="42.28889" lon="0.03499">
        <ele>915.2</ele>
        <time>2015-09-24T11:02:34Z</time>
      </trkpt>
      <trkpt lat="42.28893" lon="0.03491">
        <ele>915</ele>
        <time>2015-09-24T11:02:35Z</time>
      </trkpt>
      <trkpt lat="42.28897" lon="0.03483">
        <ele>914.6</ele>
        <time>2015-09-24T11:02:36Z</time>
      </trkpt>
      <trkpt lat="42.28901" lon="0.03475">
        <ele>914</ele>
        <time>2015-09-24T11:02:37Z</time>
      </trkpt>
      <trkpt lat="42.28905" lon="0.03469">
        <ele>913.3</ele>
        <time>2015-09-24T11:02:38Z</time>
      </trkpt>
      <trkpt lat="42.2891" lon="0.03463">
        <ele>912.4</ele>
        <time>2015-09-24T11:02:39Z</time>
      </trkpt>
      <trkpt lat="42.28914" lon="0.03457">
        <ele>911.3</ele>
        <time>2015-09-24T11:02:40Z</time>
      </trkpt>
      <trkpt lat="42.2892" lon="0.03453">
        <ele>910.3</ele>
        <time>2015-09-24T11:02:41Z</time>
      </trkpt>
      <trkpt lat="42.28925" lon="0.03449">
        <ele>909.2</ele>
        <time>2015-09-24T11:02:42Z</time>
      </trkpt>
      <trkpt lat="42.2893" lon="0.03445">
        <ele>907.9</ele>
        <time>2015-09-24T11:02:43Z</time>
      </trkpt>
      <trkpt lat="42.28935" lon="0.03443">
        <ele>906.4</ele>
        <time>2015-09-24T11:02:44Z</time>
      </trkpt>
      <trkpt lat="42.28939" lon="0.0344">
        <ele>905.3</ele>
        <time>2015-09-24T11:02:45Z</time>
      </trkpt>
      <trkpt lat="42.28943" lon="0.03438">
        <ele>904.2</ele>
        <time>2015-09-24T11:02:46Z</time>
      </trkpt>
      <trkpt lat="42.28947" lon="0.03434">
        <ele>903.8</ele>
        <time>2015-09-24T11:02:47Z</time>
      </trkpt>
      <trkpt lat="42.2895" lon="0.03431">
        <ele>903.1</ele>
        <time>2015-09-24T11:02:48Z</time>
      </trkpt>
      <trkpt lat="42.28954" lon="0.03428">
        <ele>902.2</ele>
        <time>2015-09-24T11:02:49Z</time>
      </trkpt>
      <trkpt lat="42.28958" lon="0.03426">
        <ele>901.1</ele>
        <time>2015-09-24T11:02:50Z</time>
      </trkpt>
      <trkpt lat="42.28963" lon="0.03424">
        <ele>900.3</ele>
        <time>2015-09-24T11:02:51Z</time>
      </trkpt>
      <trkpt lat="42.28968" lon="0.03422">
        <ele>899.5</ele>
        <time>2015-09-24T11:02:52Z</time>
      </trkpt>
      <trkpt lat="42.28973" lon="0.03419">
        <ele>898.8</ele>
        <time>2015-09-24T11:02:53Z</time>
      </trkpt>
      <trkpt lat="42.28977" lon="0.03417">
        <ele>898.1</ele>
        <time>2015-09-24T11:02:54Z</time>
      </trkpt>
      <trkpt lat="42.28981" lon="0.03415">
        <ele>897.2</ele>
        <time>2015-09-24T11:02:55Z</time>
      </trkpt>
      <trkpt lat="42.28986" lon="0.03412">
        <ele>896.5</ele>
        <time>2015-09-24T11:02:56Z</time>
      </trkpt>
      <trkpt lat="42.28991" lon="0.0341">
        <ele>895.5</ele>
        <time>2015-09-24T11:02:57Z</time>
      </trkpt>
      <trkpt lat="42.28995" lon="0.03408">
        <ele>894.6</ele>
        <time>2015-09-24T11:02:58Z</time>
      </trkpt>
      <trkpt lat="42.29" lon="0.03404">
        <ele>893.9</ele>
        <time>2015-09-24T11:02:59Z</time>
      </trkpt>
      <trkpt lat="42.29005" lon="0.03401">
        <ele>893.1</ele>
        <time>2015-09-24T11:03:00Z</time>
      </trkpt>
      <trkpt lat="42.2901" lon="0.03397">
        <ele>892.2</ele>
        <time>2015-09-24T11:03:01Z</time>
      </trkpt>
      <trkpt lat="42.29014" lon="0.03393">
        <ele>891.5</ele>
        <time>2015-09-24T11:03:02Z</time>
      </trkpt>
      <trkpt lat="42.29019" lon="0.03389">
        <ele>890.7</ele>
        <time>2015-09-24T11:03:03Z</time>
      </trkpt>
      <trkpt lat="42.29023" lon="0.03384">
        <ele>890.1</ele>
        <time>2015-09-24T11:03:04Z</time>
      </trkpt>
      <trkpt lat="42.29028" lon="0.0338">
        <ele>889.1</ele>
        <time>2015-09-24T11:03:05Z</time>
      </trkpt>
      <trkpt lat="42.29033" lon="0.03376">
        <ele>888</ele>
        <time>2015-09-24T11:03:06Z</time>
      </trkpt>
      <trkpt lat="42.29039" lon="0.03372">
        <ele>886.6</ele>
        <time>2015-09-24T11:03:07Z</time>
      </trkpt>
      <trkpt lat="42.29043" lon="0.03369">
        <ele>885.8</ele>
        <time>2015-09-24T11:03:08Z</time>
      </trkpt>
      <trkpt lat="42.29047" lon="0.03366">
        <ele>885.5</ele>
        <time>2015-09-24T11:03:09Z</time>
      </trkpt>
      <trkpt lat="42.29052" lon="0.03363">
        <ele>885.2</ele>
        <time>2015-09-24T11:03:10Z</time>
      </trkpt>
      <trkpt lat="42.29057" lon="0.0336">
        <ele>884.8</ele>
        <time>2015-09-24T11:03:11Z</time>
      </trkpt>
      <trkpt lat="42.29062" lon="0.03357">
        <ele>884.3</ele>
        <time>2015-09-24T11:03:12Z</time>
      </trkpt>
      <trkpt lat="42.29067" lon="0.03354">
        <ele>884</ele>
        <time>2015-09-24T11:03:13Z</time>
      </trkpt>
      <trkpt lat="42.29071" lon="0.03351">
        <ele>883.6</ele>
        <time>2015-09-24T11:03:14Z</time>
      </trkpt>
      <trkpt lat="42.29077" lon="0.0335">
        <ele>882.9</ele>
        <time>2015-09-24T11:03:15Z</time>
      </trkpt>
      <trkpt lat="42.29082" lon="0.03348">
        <ele>882.2</ele>
        <time>2015-09-24T11:03:16Z</time>
      </trkpt>
      <trkpt lat="42.29087" lon="0.03345">
        <ele>881.6</ele>
        <time>2015-09-24T11:03:17Z</time>
      </trkpt>
      <trkpt lat="42.29092" lon="0.03343">
        <ele>881</ele>
        <time>2015-09-24T11:03:18Z</time>
      </trkpt>
      <trkpt lat="42.29098" lon="0.0334">
        <ele>880.3</ele>
        <time>2015-09-24T11:03:19Z</time>
      </trkpt>
      <trkpt lat="42.29104" lon="0.03337">
        <ele>879.6</ele>
        <time>2015-09-24T11:03:20Z</time>
      </trkpt>
      <trkpt lat="42.2911" lon="0.03335">
        <ele>878.8</ele>
        <time>2015-09-24T11:03:21Z</time>
      </trkpt>
      <trkpt lat="42.29116" lon="0.03334">
        <ele>877.7</ele>
        <time>2015-09-24T11:03:22Z</time>
      </trkpt>
      <trkpt lat="42.29122" lon="0.03334">
        <ele>876.4</ele>
        <time>2015-09-24T11:03:23Z</time>
      </trkpt>
      <trkpt lat="42.29128" lon="0.03336">
        <ele>875.8</ele>
        <time>2015-09-24T11:03:24Z</time>
      </trkpt>
      <trkpt lat="42.29133" lon="0.03337">
        <ele>875.7</ele>
        <time>2015-09-24T11:03:25Z</time>
      </trkpt>
      <trkpt lat="42.29138" lon="0.03338">
        <ele>875.7</ele>
        <time>2015-09-24T11:03:26Z</time>
      </trkpt>
      <trkpt lat="42.29142" lon="0.03341">
        <ele>875.4</ele>
        <time>2015-09-24T11:03:27Z</time>
      </trkpt>
      <trkpt lat="42.29146" lon="0.03345">
        <ele>875</ele>
        <time>2015-09-24T11:03:28Z</time>
      </trkpt>
      <trkpt lat="42.29149" lon="0.0335">
        <ele>874.5</ele>
        <time>2015-09-24T11:03:29Z</time>
      </trkpt>
      <trkpt lat="42.29151" lon="0.03353">
        <ele>874.2</ele>
        <time>2015-09-24T11:03:30Z</time>
      </trkpt>
      <trkpt lat="42.29155" lon="0.03357">
        <ele>873.9</ele>
        <time>2015-09-24T11:03:31Z</time>
      </trkpt>
      <trkpt lat="42.29158" lon="0.0336">
        <ele>873.6</ele>
        <time>2015-09-24T11:03:32Z</time>
      </trkpt>
      <trkpt lat="42.29162" lon="0.03363">
        <ele>873.3</ele>
        <time>2015-09-24T11:03:33Z</time>
      </trkpt>
      <trkpt lat="42.29166" lon="0.03366">
        <ele>873</ele>
        <time>2015-09-24T11:03:34Z</time>
      </trkpt>
      <trkpt lat="42.2917" lon="0.03369">
        <ele>872.7</ele>
        <time>2015-09-24T11:03:35Z</time>
      </trkpt>
      <trkpt lat="42.29173" lon="0.03372">
        <ele>872.5</ele>
        <time>2015-09-24T11:03:36Z</time>
      </trkpt>
      <trkpt lat="42.29177" lon="0.03376">
        <ele>872.1</ele>
        <time>2015-09-24T11:03:37Z</time>
      </trkpt>
      <trkpt lat="42.29181" lon="0.03379">
        <ele>871.8</ele>
        <time>2015-09-24T11:03:38Z</time>
      </trkpt>
      <trkpt lat="42.29184" lon="0.03383">
        <ele>871.5</ele>
        <time>2015-09-24T11:03:39Z</time>
      </trkpt>
      <trkpt lat="42.29188" lon="0.03387">
        <ele>871.1</ele>
        <time>2015-09-24T11:03:40Z</time>
      </trkpt>
      <trkpt lat="42.29191" lon="0.03391">
        <ele>870.8</ele>
        <time>2015-09-24T11:03:41Z</time>
      </trkpt>
      <trkpt lat="42.29193" lon="0.03394">
        <ele>870.5</ele>
        <time>2015-09-24T11:03:42Z</time>
      </trkpt>
      <trkpt lat="42.29196" lon="0.03396">
        <ele>870.3</ele>
        <time>2015-09-24T11:03:43Z</time>
      </trkpt>
      <trkpt lat="42.29199" lon="0.03398">
        <ele>870.2</ele>
        <time>2015-09-24T11:03:44Z</time>
      </trkpt>
      <trkpt lat="42.29202" lon="0.034">
        <ele>870.1</ele>
        <time>2015-09-24T11:03:45Z</time>
      </trkpt>
      <trkpt lat="42.29206" lon="0.03403">
        <ele>869.9</ele>
        <time>2015-09-24T11:03:47Z</time>
      </trkpt>
      <trkpt lat="42.29209" lon="0.03406">
        <ele>869.7</ele>
        <time>2015-09-24T11:03:49Z</time>
      </trkpt>
      <trkpt lat="42.29213" lon="0.03409">
        <ele>869.5</ele>
        <time>2015-09-24T11:03:51Z</time>
      </trkpt>
      <trkpt lat="42.29216" lon="0.03412">
        <ele>869.4</ele>
        <time>2015-09-24T11:03:53Z</time>
      </trkpt>
      <trkpt lat="42.29221" lon="0.03416">
        <ele>869.4</ele>
        <time>2015-09-24T11:03:55Z</time>
      </trkpt>
      <trkpt lat="42.29225" lon="0.03418">
        <ele>869.4</ele>
        <time>2015-09-24T11:03:56Z</time>
      </trkpt>
      <trkpt lat="42.29229" lon="0.03419">
        <ele>869.5</ele>
        <time>2015-09-24T11:03:57Z</time>
      </trkpt>
      <trkpt lat="42.29234" lon="0.03419">
        <ele>869.8</ele>
        <time>2015-09-24T11:03:58Z</time>
      </trkpt>
      <trkpt lat="42.2924" lon="0.03417">
        <ele>870.4</ele>
        <time>2015-09-24T11:03:59Z</time>
      </trkpt>
      <trkpt lat="42.29244" lon="0.03416">
        <ele>870.7</ele>
        <time>2015-09-24T11:04:00Z</time>
      </trkpt>
      <trkpt lat="42.29249" lon="0.03415">
        <ele>871.1</ele>
        <time>2015-09-24T11:04:01Z</time>
      </trkpt>
      <trkpt lat="42.29254" lon="0.03413">
        <ele>871.6</ele>
        <time>2015-09-24T11:04:02Z</time>
      </trkpt>
      <trkpt lat="42.29259" lon="0.03412">
        <ele>871.9</ele>
        <time>2015-09-24T11:04:03Z</time>
      </trkpt>
      <trkpt lat="42.29264" lon="0.03412">
        <ele>872.3</ele>
        <time>2015-09-24T11:04:04Z</time>
      </trkpt>
      <trkpt lat="42.29269" lon="0.03411">
        <ele>872.7</ele>
        <time>2015-09-24T11:04:05Z</time>
      </trkpt>
      <trkpt lat="42.29273" lon="0.03408">
        <ele>873.2</ele>
        <time>2015-09-24T11:04:06Z</time>
      </trkpt>
      <trkpt lat="42.29277" lon="0.03405">
        <ele>873.7</ele>
        <time>2015-09-24T11:04:07Z</time>
      </trkpt>
      <trkpt lat="42.29282" lon="0.03402">
        <ele>874.1</ele>
        <time>2015-09-24T11:04:08Z</time>
      </trkpt>
      <trkpt lat="42.29285" lon="0.03399">
        <ele>874.6</ele>
        <time>2015-09-24T11:04:09Z</time>
      </trkpt>
      <trkpt lat="42.29289" lon="0.03396">
        <ele>875.1</ele>
        <time>2015-09-24T11:04:10Z</time>
      </trkpt>
      <trkpt lat="42.29292" lon="0.03392">
        <ele>875.6</ele>
        <time>2015-09-24T11:04:11Z</time>
      </trkpt>
      <trkpt lat="42.29294" lon="0.03388">
        <ele>875.7</ele>
        <time>2015-09-24T11:04:12Z</time>
      </trkpt>
      <trkpt lat="42.29296" lon="0.03384">
        <ele>875.9</ele>
        <time>2015-09-24T11:04:13Z</time>
      </trkpt>
      <trkpt lat="42.29298" lon="0.0338">
        <ele>876.1</ele>
        <time>2015-09-24T11:04:14Z</time>
      </trkpt>
      <trkpt lat="42.293" lon="0.03376">
        <ele>876.3</ele>
        <time>2015-09-24T11:04:15Z</time>
      </trkpt>
      <trkpt lat="42.29302" lon="0.03372">
        <ele>876.6</ele>
        <time>2015-09-24T11:04:16Z</time>
      </trkpt>
      <trkpt lat="42.29303" lon="0.03368">
        <ele>876.8</ele>
        <time>2015-09-24T11:04:17Z</time>
      </trkpt>
      <trkpt lat="42.29306" lon="0.03363">
        <ele>876.9</ele>
        <time>2015-09-24T11:04:18Z</time>
      </trkpt>
      <trkpt lat="42.29309" lon="0.0336">
        <ele>877</ele>
        <time>2015-09-24T11:04:19Z</time>
      </trkpt>
      <trkpt lat="42.29313" lon="0.03357">
        <ele>876.9</ele>
        <time>2015-09-24T11:04:20Z</time>
      </trkpt>
      <trkpt lat="42.29318" lon="0.03355">
        <ele>876.7</ele>
        <time>2015-09-24T11:04:21Z</time>
      </trkpt>
      <trkpt lat="42.29323" lon="0.03354">
        <ele>876.4</ele>
        <time>2015-09-24T11:04:22Z</time>
      </trkpt>
      <trkpt lat="42.29328" lon="0.03354">
        <ele>876</ele>
        <time>2015-09-24T11:04:23Z</time>
      </trkpt>
      <trkpt lat="42.29333" lon="0.03355">
        <ele>875.6</ele>
        <time>2015-09-24T11:04:24Z</time>
      </trkpt>
      <trkpt lat="42.29338" lon="0.03354">
        <ele>875.3</ele>
        <time>2015-09-24T11:04:25Z</time>
      </trkpt>
      <trkpt lat="42.29342" lon="0.03353">
        <ele>875.1</ele>
        <time>2015-09-24T11:04:26Z</time>
      </trkpt>
      <trkpt lat="42.29346" lon="0.03351">
        <ele>874.9</ele>
        <time>2015-09-24T11:04:27Z</time>
      </trkpt>
      <trkpt lat="42.2935" lon="0.03349">
        <ele>874.8</ele>
        <time>2015-09-24T11:04:28Z</time>
      </trkpt>
      <trkpt lat="42.29354" lon="0.03348">
        <ele>874.6</ele>
        <time>2015-09-24T11:04:29Z</time>
      </trkpt>
      <trkpt lat="42.29357" lon="0.03347">
        <ele>874.4</ele>
        <time>2015-09-24T11:04:30Z</time>
      </trkpt>
      <trkpt lat="42.29362" lon="0.03348">
        <ele>874</ele>
        <time>2015-09-24T11:04:31Z</time>
      </trkpt>
      <trkpt lat="42.29365" lon="0.0335">
        <ele>873.5</ele>
        <time>2015-09-24T11:04:32Z</time>
      </trkpt>
      <trkpt lat="42.29369" lon="0.03353">
        <ele>873</ele>
        <time>2015-09-24T11:04:33Z</time>
      </trkpt>
      <trkpt lat="42.29373" lon="0.03356">
        <ele>872.5</ele>
        <time>2015-09-24T11:04:34Z</time>
      </trkpt>
      <trkpt lat="42.29377" lon="0.03359">
        <ele>871.9</ele>
        <time>2015-09-24T11:04:35Z</time>
      </trkpt>
      <trkpt lat="42.2938" lon="0.03362">
        <ele>871.1</ele>
        <time>2015-09-24T11:04:36Z</time>
      </trkpt>
      <trkpt lat="42.29384" lon="0.03364">
        <ele>870.4</ele>
        <time>2015-09-24T11:04:37Z</time>
      </trkpt>
      <trkpt lat="42.29387" lon="0.03366">
        <ele>869.6</ele>
        <time>2015-09-24T11:04:38Z</time>
      </trkpt>
      <trkpt lat="42.29391" lon="0.03368">
        <ele>868.8</ele>
        <time>2015-09-24T11:04:39Z</time>
      </trkpt>
      <trkpt lat="42.29395" lon="0.0337">
        <ele>868</ele>
        <time>2015-09-24T11:04:40Z</time>
      </trkpt>
      <trkpt lat="42.29401" lon="0.03371">
        <ele>866.9</ele>
        <time>2015-09-24T11:04:41Z</time>
      </trkpt>
      <trkpt lat="42.29406" lon="0.03371">
        <ele>866</ele>
        <time>2015-09-24T11:04:42Z</time>
      </trkpt>
      <trkpt lat="42.29412" lon="0.0337">
        <ele>865.1</ele>
        <time>2015-09-24T11:04:43Z</time>
      </trkpt>
      <trkpt lat="42.29418" lon="0.0337">
        <ele>864.2</ele>
        <time>2015-09-24T11:04:44Z</time>
      </trkpt>
      <trkpt lat="42.29424" lon="0.0337">
        <ele>863.2</ele>
        <time>2015-09-24T11:04:45Z</time>
      </trkpt>
      <trkpt lat="42.29429" lon="0.03369">
        <ele>862.4</ele>
        <time>2015-09-24T11:04:46Z</time>
      </trkpt>
      <trkpt lat="42.29434" lon="0.03367">
        <ele>861.7</ele>
        <time>2015-09-24T11:04:47Z</time>
      </trkpt>
      <trkpt lat="42.29438" lon="0.03365">
        <ele>861.3</ele>
        <time>2015-09-24T11:04:48Z</time>
      </trkpt>
      <trkpt lat="42.2944" lon="0.03362">
        <ele>861.1</ele>
        <time>2015-09-24T11:04:49Z</time>
      </trkpt>
      <trkpt lat="42.29442" lon="0.03359">
        <ele>860.9</ele>
        <time>2015-09-24T11:04:50Z</time>
      </trkpt>
      <trkpt lat="42.29444" lon="0.03355">
        <ele>860.9</ele>
        <time>2015-09-24T11:04:51Z</time>
      </trkpt>
      <trkpt lat="42.29446" lon="0.03351">
        <ele>860.9</ele>
        <time>2015-09-24T11:04:52Z</time>
      </trkpt>
      <trkpt lat="42.29447" lon="0.03346">
        <ele>861</ele>
        <time>2015-09-24T11:04:53Z</time>
      </trkpt>
      <trkpt lat="42.29448" lon="0.0334">
        <ele>861.3</ele>
        <time>2015-09-24T11:04:54Z</time>
      </trkpt>
      <trkpt lat="42.29449" lon="0.03333">
        <ele>861.6</ele>
        <time>2015-09-24T11:04:55Z</time>
      </trkpt>
      <trkpt lat="42.2945" lon="0.03327">
        <ele>861.9</ele>
        <time>2015-09-24T11:04:56Z</time>
      </trkpt>
      <trkpt lat="42.29451" lon="0.03321">
        <ele>862.1</ele>
        <time>2015-09-24T11:04:57Z</time>
      </trkpt>
      <trkpt lat="42.29453" lon="0.03317">
        <ele>862</ele>
        <time>2015-09-24T11:04:58Z</time>
      </trkpt>
      <trkpt lat="42.29456" lon="0.03314">
        <ele>861.8</ele>
        <time>2015-09-24T11:04:59Z</time>
      </trkpt>
      <trkpt lat="42.29459" lon="0.03313">
        <ele>861.4</ele>
        <time>2015-09-24T11:05:00Z</time>
      </trkpt>
      <trkpt lat="42.29463" lon="0.03313">
        <ele>861.2</ele>
        <time>2015-09-24T11:05:01Z</time>
      </trkpt>
      <trkpt lat="42.29466" lon="0.03314">
        <ele>861</ele>
        <time>2015-09-24T11:05:02Z</time>
      </trkpt>
      <trkpt lat="42.29469" lon="0.03314">
        <ele>860.9</ele>
        <time>2015-09-24T11:05:03Z</time>
      </trkpt>
      <trkpt lat="42.29473" lon="0.03315">
        <ele>860.6</ele>
        <time>2015-09-24T11:05:04Z</time>
      </trkpt>
      <trkpt lat="42.29475" lon="0.03316">
        <ele>860.5</ele>
        <time>2015-09-24T11:05:05Z</time>
      </trkpt>
      <trkpt lat="42.29478" lon="0.03317">
        <ele>860.2</ele>
        <time>2015-09-24T11:05:06Z</time>
      </trkpt>
      <trkpt lat="42.29481" lon="0.03317">
        <ele>860.1</ele>
        <time>2015-09-24T11:05:07Z</time>
      </trkpt>
      <trkpt lat="42.29484" lon="0.03318">
        <ele>859.9</ele>
        <time>2015-09-24T11:05:08Z</time>
      </trkpt>
      <trkpt lat="42.29487" lon="0.03319">
        <ele>859.7</ele>
        <time>2015-09-24T11:05:09Z</time>
      </trkpt>
      <trkpt lat="42.2949" lon="0.03319">
        <ele>859.5</ele>
        <time>2015-09-24T11:05:10Z</time>
      </trkpt>
      <trkpt lat="42.29493" lon="0.0332">
        <ele>859.3</ele>
        <time>2015-09-24T11:05:11Z</time>
      </trkpt>
      <trkpt lat="42.29496" lon="0.03322">
        <ele>859</ele>
        <time>2015-09-24T11:05:12Z</time>
      </trkpt>
      <trkpt lat="42.29499" lon="0.03323">
        <ele>858.8</ele>
        <time>2015-09-24T11:05:13Z</time>
      </trkpt>
      <trkpt lat="42.29503" lon="0.03325">
        <ele>858.5</ele>
        <time>2015-09-24T11:05:15Z</time>
      </trkpt>
      <trkpt lat="42.29507" lon="0.03325">
        <ele>858.3</ele>
        <time>2015-09-24T11:05:17Z</time>
      </trkpt>
      <trkpt lat="42.29511" lon="0.03323">
        <ele>858.2</ele>
        <time>2015-09-24T11:05:19Z</time>
      </trkpt>
      <trkpt lat="42.29516" lon="0.03318">
        <ele>858.4</ele>
        <time>2015-09-24T11:05:21Z</time>
      </trkpt>
      <trkpt lat="42.29518" lon="0.03315">
        <ele>858.4</ele>
        <time>2015-09-24T11:05:22Z</time>
      </trkpt>
      <trkpt lat="42.29521" lon="0.03312">
        <ele>858.5</ele>
        <time>2015-09-24T11:05:23Z</time>
      </trkpt>
      <trkpt lat="42.29524" lon="0.0331">
        <ele>858.6</ele>
        <time>2015-09-24T11:05:24Z</time>
      </trkpt>
      <trkpt lat="42.29527" lon="0.03307">
        <ele>858.6</ele>
        <time>2015-09-24T11:05:25Z</time>
      </trkpt>
      <trkpt lat="42.2953" lon="0.03305">
        <ele>858.6</ele>
        <time>2015-09-24T11:05:26Z</time>
      </trkpt>
      <trkpt lat="42.29533" lon="0.03303">
        <ele>858.6</ele>
        <time>2015-09-24T11:05:27Z</time>
      </trkpt>
      <trkpt lat="42.29536" lon="0.03301">
        <ele>858.6</ele>
        <time>2015-09-24T11:05:28Z</time>
      </trkpt>
      <trkpt lat="42.2954" lon="0.033">
        <ele>858.5</ele>
        <time>2015-09-24T11:05:29Z</time>
      </trkpt>
      <trkpt lat="42.29543" lon="0.03298">
        <ele>858.7</ele>
        <time>2015-09-24T11:05:30Z</time>
      </trkpt>
      <trkpt lat="42.29547" lon="0.03297">
        <ele>859.1</ele>
        <time>2015-09-24T11:05:31Z</time>
      </trkpt>
      <trkpt lat="42.2955" lon="0.03297">
        <ele>859.6</ele>
        <time>2015-09-24T11:05:32Z</time>
      </trkpt>
      <trkpt lat="42.29554" lon="0.03297">
        <ele>860</ele>
        <time>2015-09-24T11:05:33Z</time>
      </trkpt>
      <trkpt lat="42.29558" lon="0.03298">
        <ele>860.3</ele>
        <time>2015-09-24T11:05:34Z</time>
      </trkpt>
      <trkpt lat="42.29562" lon="0.033">
        <ele>860.6</ele>
        <time>2015-09-24T11:05:35Z</time>
      </trkpt>
      <trkpt lat="42.29566" lon="0.03302">
        <ele>860.9</ele>
        <time>2015-09-24T11:05:36Z</time>
      </trkpt>
      <trkpt lat="42.2957" lon="0.03304">
        <ele>861.1</ele>
        <time>2015-09-24T11:05:37Z</time>
      </trkpt>
      <trkpt lat="42.29574" lon="0.03306">
        <ele>861.2</ele>
        <time>2015-09-24T11:05:38Z</time>
      </trkpt>
      <trkpt lat="42.29578" lon="0.03308">
        <ele>861.4</ele>
        <time>2015-09-24T11:05:39Z</time>
      </trkpt>
      <trkpt lat="42.29582" lon="0.0331">
        <ele>861.5</ele>
        <time>2015-09-24T11:05:40Z</time>
      </trkpt>
      <trkpt lat="42.29586" lon="0.03312">
        <ele>861.6</ele>
        <time>2015-09-24T11:05:41Z</time>
      </trkpt>
      <trkpt lat="42.2959" lon="0.03314">
        <ele>861.8</ele>
        <time>2015-09-24T11:05:42Z</time>
      </trkpt>
      <trkpt lat="42.29594" lon="0.03316">
        <ele>861.9</ele>
        <time>2015-09-24T11:05:43Z</time>
      </trkpt>
      <trkpt lat="42.29598" lon="0.03317">
        <ele>862.1</ele>
        <time>2015-09-24T11:05:44Z</time>
      </trkpt>
      <trkpt lat="42.29602" lon="0.03318">
        <ele>862.3</ele>
        <time>2015-09-24T11:05:45Z</time>
      </trkpt>
      <trkpt lat="42.29606" lon="0.03319">
        <ele>862.5</ele>
        <time>2015-09-24T11:05:46Z</time>
      </trkpt>
      <trkpt lat="42.2961" lon="0.0332">
        <ele>862.7</ele>
        <time>2015-09-24T11:05:47Z</time>
      </trkpt>
      <trkpt lat="42.29614" lon="0.03322">
        <ele>862.7</ele>
        <time>2015-09-24T11:05:48Z</time>
      </trkpt>
      <trkpt lat="42.29618" lon="0.03323">
        <ele>862.8</ele>
        <time>2015-09-24T11:05:49Z</time>
      </trkpt>
      <trkpt lat="42.29621" lon="0.03324">
        <ele>862.8</ele>
        <time>2015-09-24T11:05:50Z</time>
      </trkpt>
      <trkpt lat="42.29624" lon="0.03326">
        <ele>862.8</ele>
        <time>2015-09-24T11:05:51Z</time>
      </trkpt>
      <trkpt lat="42.29626" lon="0.03327">
        <ele>862.7</ele>
        <time>2015-09-24T11:05:52Z</time>
      </trkpt>
      <trkpt lat="42.29628" lon="0.0333">
        <ele>862.6</ele>
        <time>2015-09-24T11:05:53Z</time>
      </trkpt>
      <trkpt lat="42.29632" lon="0.03335">
        <ele>862</ele>
        <time>2015-09-24T11:05:55Z</time>
      </trkpt>
      <trkpt lat="42.29636" lon="0.0334">
        <ele>861.5</ele>
        <time>2015-09-24T11:05:57Z</time>
      </trkpt>
      <trkpt lat="42.2964" lon="0.03346">
        <ele>861.1</ele>
        <time>2015-09-24T11:05:59Z</time>
      </trkpt>
      <trkpt lat="42.29642" lon="0.03348">
        <ele>860.9</ele>
        <time>2015-09-24T11:06:00Z</time>
      </trkpt>
      <trkpt lat="42.29644" lon="0.03351">
        <ele>860.6</ele>
        <time>2015-09-24T11:06:01Z</time>
      </trkpt>
      <trkpt lat="42.29646" lon="0.03354">
        <ele>860.4</ele>
        <time>2015-09-24T11:06:02Z</time>
      </trkpt>
      <trkpt lat="42.29647" lon="0.03357">
        <ele>860.1</ele>
        <time>2015-09-24T11:06:03Z</time>
      </trkpt>
      <trkpt lat="42.29649" lon="0.0336">
        <ele>859.9</ele>
        <time>2015-09-24T11:06:04Z</time>
      </trkpt>
      <trkpt lat="42.29651" lon="0.03362">
        <ele>859.6</ele>
        <time>2015-09-24T11:06:05Z</time>
      </trkpt>
      <trkpt lat="42.29653" lon="0.03365">
        <ele>859.4</ele>
        <time>2015-09-24T11:06:06Z</time>
      </trkpt>
      <trkpt lat="42.29656" lon="0.03368">
        <ele>859.2</ele>
        <time>2015-09-24T11:06:07Z</time>
      </trkpt>
      <trkpt lat="42.29658" lon="0.03372">
        <ele>858.9</ele>
        <time>2015-09-24T11:06:08Z</time>
      </trkpt>
      <trkpt lat="42.29661" lon="0.03376">
        <ele>858.6</ele>
        <time>2015-09-24T11:06:09Z</time>
      </trkpt>
      <trkpt lat="42.29664" lon="0.0338">
        <ele>858.5</ele>
        <time>2015-09-24T11:06:10Z</time>
      </trkpt>
      <trkpt lat="42.29667" lon="0.03384">
        <ele>858.3</ele>
        <time>2015-09-24T11:06:11Z</time>
      </trkpt>
      <trkpt lat="42.2967" lon="0.03387">
        <ele>858.2</ele>
        <time>2015-09-24T11:06:12Z</time>
      </trkpt>
      <trkpt lat="42.29674" lon="0.03391">
        <ele>858.1</ele>
        <time>2015-09-24T11:06:13Z</time>
      </trkpt>
      <trkpt lat="42.29677" lon="0.03394">
        <ele>858.1</ele>
        <time>2015-09-24T11:06:14Z</time>
      </trkpt>
      <trkpt lat="42.29681" lon="0.03398">
        <ele>858</ele>
        <time>2015-09-24T11:06:15Z</time>
      </trkpt>
      <trkpt lat="42.29684" lon="0.034">
        <ele>858</ele>
        <time>2015-09-24T11:06:16Z</time>
      </trkpt>
      <trkpt lat="42.29688" lon="0.03403">
        <ele>858</ele>
        <time>2015-09-24T11:06:17Z</time>
      </trkpt>
      <trkpt lat="42.29691" lon="0.03405">
        <ele>858.1</ele>
        <time>2015-09-24T11:06:18Z</time>
      </trkpt>
      <trkpt lat="42.29694" lon="0.03407">
        <ele>858.1</ele>
        <time>2015-09-24T11:06:19Z</time>
      </trkpt>
      <trkpt lat="42.29699" lon="0.03409">
        <ele>858.3</ele>
        <time>2015-09-24T11:06:21Z</time>
      </trkpt>
      <trkpt lat="42.29704" lon="0.03411">
        <ele>858.5</ele>
        <time>2015-09-24T11:06:23Z</time>
      </trkpt>
      <trkpt lat="42.29707" lon="0.03412">
        <ele>858.5</ele>
        <time>2015-09-24T11:06:24Z</time>
      </trkpt>
      <trkpt lat="42.2971" lon="0.03414">
        <ele>858.6</ele>
        <time>2015-09-24T11:06:25Z</time>
      </trkpt>
      <trkpt lat="42.29713" lon="0.03416">
        <ele>858.6</ele>
        <time>2015-09-24T11:06:26Z</time>
      </trkpt>
      <trkpt lat="42.29717" lon="0.03417">
        <ele>858.6</ele>
        <time>2015-09-24T11:06:27Z</time>
      </trkpt>
      <trkpt lat="42.2972" lon="0.03419">
        <ele>858.6</ele>
        <time>2015-09-24T11:06:28Z</time>
      </trkpt>
      <trkpt lat="42.29724" lon="0.03421">
        <ele>858.6</ele>
        <time>2015-09-24T11:06:29Z</time>
      </trkpt>
      <trkpt lat="42.29727" lon="0.03423">
        <ele>858.6</ele>
        <time>2015-09-24T11:06:30Z</time>
      </trkpt>
      <trkpt lat="42.29731" lon="0.03425">
        <ele>858.7</ele>
        <time>2015-09-24T11:06:31Z</time>
      </trkpt>
      <trkpt lat="42.29734" lon="0.03426">
        <ele>858.7</ele>
        <time>2015-09-24T11:06:32Z</time>
      </trkpt>
      <trkpt lat="42.29738" lon="0.03428">
        <ele>858.8</ele>
        <time>2015-09-24T11:06:33Z</time>
      </trkpt>
      <trkpt lat="42.29741" lon="0.03429">
        <ele>858.9</ele>
        <time>2015-09-24T11:06:34Z</time>
      </trkpt>
      <trkpt lat="42.29745" lon="0.03431">
        <ele>859</ele>
        <time>2015-09-24T11:06:35Z</time>
      </trkpt>
      <trkpt lat="42.29748" lon="0.03432">
        <ele>859</ele>
        <time>2015-09-24T11:06:36Z</time>
      </trkpt>
      <trkpt lat="42.29751" lon="0.03434">
        <ele>859.1</ele>
        <time>2015-09-24T11:06:37Z</time>
      </trkpt>
      <trkpt lat="42.29754" lon="0.03436">
        <ele>859.1</ele>
        <time>2015-09-24T11:06:38Z</time>
      </trkpt>
      <trkpt lat="42.29757" lon="0.03439">
        <ele>859</ele>
        <time>2015-09-24T11:06:39Z</time>
      </trkpt>
      <trkpt lat="42.29761" lon="0.03441">
        <ele>859.1</ele>
        <time>2015-09-24T11:06:40Z</time>
      </trkpt>
      <trkpt lat="42.29764" lon="0.03444">
        <ele>859</ele>
        <time>2015-09-24T11:06:41Z</time>
      </trkpt>
      <trkpt lat="42.29768" lon="0.03446">
        <ele>859</ele>
        <time>2015-09-24T11:06:42Z</time>
      </trkpt>
      <trkpt lat="42.29771" lon="0.03449">
        <ele>859</ele>
        <time>2015-09-24T11:06:43Z</time>
      </trkpt>
      <trkpt lat="42.29775" lon="0.03452">
        <ele>859.1</ele>
        <time>2015-09-24T11:06:44Z</time>
      </trkpt>
      <trkpt lat="42.29779" lon="0.03454">
        <ele>859.1</ele>
        <time>2015-09-24T11:06:45Z</time>
      </trkpt>
      <trkpt lat="42.29782" lon="0.03457">
        <ele>859.2</ele>
        <time>2015-09-24T11:06:46Z</time>
      </trkpt>
      <trkpt lat="42.29786" lon="0.03459">
        <ele>859.2</ele>
        <time>2015-09-24T11:06:47Z</time>
      </trkpt>
      <trkpt lat="42.2979" lon="0.03462">
        <ele>859.1</ele>
        <time>2015-09-24T11:06:48Z</time>
      </trkpt>
      <trkpt lat="42.29793" lon="0.03465">
        <ele>858.9</ele>
        <time>2015-09-24T11:06:49Z</time>
      </trkpt>
      <trkpt lat="42.29796" lon="0.03468">
        <ele>858.6</ele>
        <time>2015-09-24T11:06:50Z</time>
      </trkpt>
      <trkpt lat="42.298" lon="0.03472">
        <ele>858.2</ele>
        <time>2015-09-24T11:06:51Z</time>
      </trkpt>
      <trkpt lat="42.29804" lon="0.03476">
        <ele>857.7</ele>
        <time>2015-09-24T11:06:52Z</time>
      </trkpt>
      <trkpt lat="42.29808" lon="0.0348">
        <ele>857.2</ele>
        <time>2015-09-24T11:06:53Z</time>
      </trkpt>
      <trkpt lat="42.2981" lon="0.03482">
        <ele>856.9</ele>
        <time>2015-09-24T11:06:54Z</time>
      </trkpt>
      <trkpt lat="42.29814" lon="0.03484">
        <ele>856.8</ele>
        <time>2015-09-24T11:06:55Z</time>
      </trkpt>
      <trkpt lat="42.29816" lon="0.03486">
        <ele>856.6</ele>
        <time>2015-09-24T11:06:56Z</time>
      </trkpt>
      <trkpt lat="42.29819" lon="0.03488">
        <ele>856.4</ele>
        <time>2015-09-24T11:06:57Z</time>
      </trkpt>
      <trkpt lat="42.29822" lon="0.0349">
        <ele>856.3</ele>
        <time>2015-09-24T11:06:58Z</time>
      </trkpt>
      <trkpt lat="42.29826" lon="0.03492">
        <ele>856.3</ele>
        <time>2015-09-24T11:06:59Z</time>
      </trkpt>
      <trkpt lat="42.2983" lon="0.03493">
        <ele>856.2</ele>
        <time>2015-09-24T11:07:00Z</time>
      </trkpt>
      <trkpt lat="42.29834" lon="0.03494">
        <ele>856.2</ele>
        <time>2015-09-24T11:07:01Z</time>
      </trkpt>
      <trkpt lat="42.29838" lon="0.03496">
        <ele>856.2</ele>
        <time>2015-09-24T11:07:02Z</time>
      </trkpt>
      <trkpt lat="42.29842" lon="0.03497">
        <ele>856.2</ele>
        <time>2015-09-24T11:07:03Z</time>
      </trkpt>
      <trkpt lat="42.29846" lon="0.03499">
        <ele>856.2</ele>
        <time>2015-09-24T11:07:04Z</time>
      </trkpt>
      <trkpt lat="42.29849" lon="0.035">
        <ele>856.1</ele>
        <time>2015-09-24T11:07:05Z</time>
      </trkpt>
      <trkpt lat="42.29853" lon="0.03501">
        <ele>856.1</ele>
        <time>2015-09-24T11:07:06Z</time>
      </trkpt>
      <trkpt lat="42.29857" lon="0.03502">
        <ele>856.1</ele>
        <time>2015-09-24T11:07:07Z</time>
      </trkpt>
      <trkpt lat="42.2986" lon="0.03504">
        <ele>856.1</ele>
        <time>2015-09-24T11:07:08Z</time>
      </trkpt>
      <trkpt lat="42.29864" lon="0.03505">
        <ele>856.2</ele>
        <time>2015-09-24T11:07:09Z</time>
      </trkpt>
      <trkpt lat="42.29867" lon="0.03506">
        <ele>856.2</ele>
        <time>2015-09-24T11:07:10Z</time>
      </trkpt>
      <trkpt lat="42.2987" lon="0.03507">
        <ele>856.2</ele>
        <time>2015-09-24T11:07:11Z</time>
      </trkpt>
      <trkpt lat="42.29873" lon="0.03508">
        <ele>856.2</ele>
        <time>2015-09-24T11:07:13Z</time>
      </trkpt>
      <trkpt lat="42.29877" lon="0.03509">
        <ele>856.2</ele>
        <time>2015-09-24T11:07:15Z</time>
      </trkpt>
      <trkpt lat="42.29882" lon="0.0351">
        <ele>856.4</ele>
        <time>2015-09-24T11:07:17Z</time>
      </trkpt>
      <trkpt lat="42.29887" lon="0.03511">
        <ele>856.6</ele>
        <time>2015-09-24T11:07:19Z</time>
      </trkpt>
      <trkpt lat="42.29892" lon="0.0351">
        <ele>857</ele>
        <time>2015-09-24T11:07:21Z</time>
      </trkpt>
      <trkpt lat="42.29897" lon="0.03508">
        <ele>857.5</ele>
        <time>2015-09-24T11:07:23Z</time>
      </trkpt>
      <trkpt lat="42.29901" lon="0.03505">
        <ele>858.1</ele>
        <time>2015-09-24T11:07:25Z</time>
      </trkpt>
      <trkpt lat="42.29905" lon="0.03503">
        <ele>858.6</ele>
        <time>2015-09-24T11:07:27Z</time>
      </trkpt>
      <trkpt lat="42.29908" lon="0.03501">
        <ele>859</ele>
        <time>2015-09-24T11:07:29Z</time>
      </trkpt>
      <trkpt lat="42.29911" lon="0.035">
        <ele>859.3</ele>
        <time>2015-09-24T11:07:31Z</time>
      </trkpt>
      <trkpt lat="42.29913" lon="0.03497">
        <ele>859.6</ele>
        <time>2015-09-24T11:07:33Z</time>
      </trkpt>
      <trkpt lat="42.29916" lon="0.03494">
        <ele>860.1</ele>
        <time>2015-09-24T11:07:35Z</time>
      </trkpt>
      <trkpt lat="42.29918" lon="0.03492">
        <ele>860.5</ele>
        <time>2015-09-24T11:07:37Z</time>
      </trkpt>
      <trkpt lat="42.2992" lon="0.03489">
        <ele>860.8</ele>
        <time>2015-09-24T11:07:39Z</time>
      </trkpt>
      <trkpt lat="42.29924" lon="0.03489">
        <ele>861</ele>
        <time>2015-09-24T11:07:41Z</time>
      </trkpt>
      <trkpt lat="42.29927" lon="0.03488">
        <ele>861.2</ele>
        <time>2015-09-24T11:07:43Z</time>
      </trkpt>
      <trkpt lat="42.29931" lon="0.03488">
        <ele>861.3</ele>
        <time>2015-09-24T11:07:44Z</time>
      </trkpt>
      <trkpt lat="42.29935" lon="0.03488">
        <ele>861.4</ele>
        <time>2015-09-24T11:07:45Z</time>
      </trkpt>
      <trkpt lat="42.2994" lon="0.03489">
        <ele>861.5</ele>
        <time>2015-09-24T11:07:46Z</time>
      </trkpt>
      <trkpt lat="42.29944" lon="0.03492">
        <ele>861.4</ele>
        <time>2015-09-24T11:07:47Z</time>
      </trkpt>
      <trkpt lat="42.29948" lon="0.03494">
        <ele>861.4</ele>
        <time>2015-09-24T11:07:48Z</time>
      </trkpt>
      <trkpt lat="42.29951" lon="0.03501">
        <ele>861.1</ele>
        <time>2015-09-24T11:07:49Z</time>
      </trkpt>
      <trkpt lat="42.29954" lon="0.03506">
        <ele>860.9</ele>
        <time>2015-09-24T11:07:50Z</time>
      </trkpt>
      <trkpt lat="42.29957" lon="0.03516">
        <ele>860.5</ele>
        <time>2015-09-24T11:07:51Z</time>
      </trkpt>
      <trkpt lat="42.2996" lon="0.03521">
        <ele>860.2</ele>
        <time>2015-09-24T11:07:52Z</time>
      </trkpt>
      <trkpt lat="42.29965" lon="0.03526">
        <ele>859.6</ele>
        <time>2015-09-24T11:07:53Z</time>
      </trkpt>
      <trkpt lat="42.29969" lon="0.03531">
        <ele>859.1</ele>
        <time>2015-09-24T11:07:54Z</time>
      </trkpt>
      <trkpt lat="42.29972" lon="0.03536">
        <ele>858.5</ele>
        <time>2015-09-24T11:07:55Z</time>
      </trkpt>
      <trkpt lat="42.29976" lon="0.03542">
        <ele>857.9</ele>
        <time>2015-09-24T11:07:56Z</time>
      </trkpt>
      <trkpt lat="42.2998" lon="0.03549">
        <ele>857.2</ele>
        <time>2015-09-24T11:07:57Z</time>
      </trkpt>
      <trkpt lat="42.29984" lon="0.03555">
        <ele>856.6</ele>
        <time>2015-09-24T11:07:58Z</time>
      </trkpt>
      <trkpt lat="42.2999" lon="0.03562">
        <ele>855.8</ele>
        <time>2015-09-24T11:07:59Z</time>
      </trkpt>
      <trkpt lat="42.29997" lon="0.03568">
        <ele>855.2</ele>
        <time>2015-09-24T11:08:00Z</time>
      </trkpt>
      <trkpt lat="42.30004" lon="0.03574">
        <ele>854.6</ele>
        <time>2015-09-24T11:08:01Z</time>
      </trkpt>
      <trkpt lat="42.3001" lon="0.0358">
        <ele>854.1</ele>
        <time>2015-09-24T11:08:02Z</time>
      </trkpt>
      <trkpt lat="42.30017" lon="0.03585">
        <ele>853.7</ele>
        <time>2015-09-24T11:08:03Z</time>
      </trkpt>
      <trkpt lat="42.30023" lon="0.0359">
        <ele>853.3</ele>
        <time>2015-09-24T11:08:04Z</time>
      </trkpt>
      <trkpt lat="42.30028" lon="0.03596">
        <ele>853</ele>
        <time>2015-09-24T11:08:05Z</time>
      </trkpt>
      <trkpt lat="42.30033" lon="0.03601">
        <ele>852.7</ele>
        <time>2015-09-24T11:08:06Z</time>
      </trkpt>
      <trkpt lat="42.30037" lon="0.03606">
        <ele>852.5</ele>
        <time>2015-09-24T11:08:07Z</time>
      </trkpt>
      <trkpt lat="42.3004" lon="0.03611">
        <ele>852.3</ele>
        <time>2015-09-24T11:08:08Z</time>
      </trkpt>
      <trkpt lat="42.30044" lon="0.03615">
        <ele>852.2</ele>
        <time>2015-09-24T11:08:09Z</time>
      </trkpt>
      <trkpt lat="42.30048" lon="0.03619">
        <ele>852</ele>
        <time>2015-09-24T11:08:10Z</time>
      </trkpt>
      <trkpt lat="42.30053" lon="0.03623">
        <ele>851.8</ele>
        <time>2015-09-24T11:08:11Z</time>
      </trkpt>
      <trkpt lat="42.30056" lon="0.03624">
        <ele>851.7</ele>
        <time>2015-09-24T11:08:12Z</time>
      </trkpt>
      <trkpt lat="42.30061" lon="0.03626">
        <ele>851.5</ele>
        <time>2015-09-24T11:08:13Z</time>
      </trkpt>
      <trkpt lat="42.30065" lon="0.03628">
        <ele>851.3</ele>
        <time>2015-09-24T11:08:14Z</time>
      </trkpt>
      <trkpt lat="42.3007" lon="0.03629">
        <ele>851.1</ele>
        <time>2015-09-24T11:08:15Z</time>
      </trkpt>
      <trkpt lat="42.30076" lon="0.0363">
        <ele>850.9</ele>
        <time>2015-09-24T11:08:16Z</time>
      </trkpt>
      <trkpt lat="42.30081" lon="0.03631">
        <ele>850.7</ele>
        <time>2015-09-24T11:08:17Z</time>
      </trkpt>
      <trkpt lat="42.30088" lon="0.03632">
        <ele>850.5</ele>
        <time>2015-09-24T11:08:18Z</time>
      </trkpt>
      <trkpt lat="42.30094" lon="0.03634">
        <ele>850.2</ele>
        <time>2015-09-24T11:08:19Z</time>
      </trkpt>
      <trkpt lat="42.30099" lon="0.03635">
        <ele>850</ele>
        <time>2015-09-24T11:08:20Z</time>
      </trkpt>
      <trkpt lat="42.30104" lon="0.03637">
        <ele>849.8</ele>
        <time>2015-09-24T11:08:21Z</time>
      </trkpt>
      <trkpt lat="42.3011" lon="0.03642">
        <ele>849.4</ele>
        <time>2015-09-24T11:08:22Z</time>
      </trkpt>
      <trkpt lat="42.30117" lon="0.03646">
        <ele>848.9</ele>
        <time>2015-09-24T11:08:23Z</time>
      </trkpt>
      <trkpt lat="42.30123" lon="0.03652">
        <ele>848.4</ele>
        <time>2015-09-24T11:08:24Z</time>
      </trkpt>
      <trkpt lat="42.3013" lon="0.03657">
        <ele>847.8</ele>
        <time>2015-09-24T11:08:25Z</time>
      </trkpt>
      <trkpt lat="42.30137" lon="0.03662">
        <ele>847.1</ele>
        <time>2015-09-24T11:08:26Z</time>
      </trkpt>
      <trkpt lat="42.30145" lon="0.03667">
        <ele>846.3</ele>
        <time>2015-09-24T11:08:27Z</time>
      </trkpt>
      <trkpt lat="42.30153" lon="0.0367">
        <ele>845.6</ele>
        <time>2015-09-24T11:08:28Z</time>
      </trkpt>
      <trkpt lat="42.30163" lon="0.03671">
        <ele>845</ele>
        <time>2015-09-24T11:08:29Z</time>
      </trkpt>
      <trkpt lat="42.30172" lon="0.03668">
        <ele>844.6</ele>
        <time>2015-09-24T11:08:30Z</time>
      </trkpt>
      <trkpt lat="42.30181" lon="0.03664">
        <ele>844.3</ele>
        <time>2015-09-24T11:08:31Z</time>
      </trkpt>
      <trkpt lat="42.3019" lon="0.03659">
        <ele>843.9</ele>
        <time>2015-09-24T11:08:32Z</time>
      </trkpt>
      <trkpt lat="42.30199" lon="0.03655">
        <ele>843.5</ele>
        <time>2015-09-24T11:08:33Z</time>
      </trkpt>
      <trkpt lat="42.30207" lon="0.03652">
        <ele>843.1</ele>
        <time>2015-09-24T11:08:34Z</time>
      </trkpt>
      <trkpt lat="42.30216" lon="0.03649">
        <ele>842.9</ele>
        <time>2015-09-24T11:08:35Z</time>
      </trkpt>
      <trkpt lat="42.30225" lon="0.03647">
        <ele>842.7</ele>
        <time>2015-09-24T11:08:36Z</time>
      </trkpt>
      <trkpt lat="42.30234" lon="0.03644">
        <ele>842.6</ele>
        <time>2015-09-24T11:08:37Z</time>
      </trkpt>
      <trkpt lat="42.30242" lon="0.03641">
        <ele>842.5</ele>
        <time>2015-09-24T11:08:38Z</time>
      </trkpt>
      <trkpt lat="42.3025" lon="0.03639">
        <ele>842.3</ele>
        <time>2015-09-24T11:08:39Z</time>
      </trkpt>
      <trkpt lat="42.30258" lon="0.03637">
        <ele>842.2</ele>
        <time>2015-09-24T11:08:40Z</time>
      </trkpt>
      <trkpt lat="42.30265" lon="0.03635">
        <ele>842.1</ele>
        <time>2015-09-24T11:08:41Z</time>
      </trkpt>
      <trkpt lat="42.30273" lon="0.03633">
        <ele>842</ele>
        <time>2015-09-24T11:08:42Z</time>
      </trkpt>
      <trkpt lat="42.30281" lon="0.03633">
        <ele>841.8</ele>
        <time>2015-09-24T11:08:43Z</time>
      </trkpt>
      <trkpt lat="42.3029" lon="0.03633">
        <ele>841.6</ele>
        <time>2015-09-24T11:08:44Z</time>
      </trkpt>
      <trkpt lat="42.30298" lon="0.03634">
        <ele>841.4</ele>
        <time>2015-09-24T11:08:45Z</time>
      </trkpt>
      <trkpt lat="42.30306" lon="0.03636">
        <ele>841.2</ele>
        <time>2015-09-24T11:08:46Z</time>
      </trkpt>
      <trkpt lat="42.30314" lon="0.03638">
        <ele>841</ele>
        <time>2015-09-24T11:08:47Z</time>
      </trkpt>
      <trkpt lat="42.30321" lon="0.03641">
        <ele>840.7</ele>
        <time>2015-09-24T11:08:48Z</time>
      </trkpt>
      <trkpt lat="42.30328" lon="0.03645">
        <ele>840.3</ele>
        <time>2015-09-24T11:08:49Z</time>
      </trkpt>
      <trkpt lat="42.30334" lon="0.0365">
        <ele>840</ele>
        <time>2015-09-24T11:08:50Z</time>
      </trkpt>
      <trkpt lat="42.3034" lon="0.03655">
        <ele>839.6</ele>
        <time>2015-09-24T11:08:51Z</time>
      </trkpt>
      <trkpt lat="42.30345" lon="0.0366">
        <ele>839.2</ele>
        <time>2015-09-24T11:08:52Z</time>
      </trkpt>
      <trkpt lat="42.30351" lon="0.03666">
        <ele>838.8</ele>
        <time>2015-09-24T11:08:53Z</time>
      </trkpt>
      <trkpt lat="42.30356" lon="0.03671">
        <ele>838.4</ele>
        <time>2015-09-24T11:08:54Z</time>
      </trkpt>
      <trkpt lat="42.30361" lon="0.03677">
        <ele>838</ele>
        <time>2015-09-24T11:08:55Z</time>
      </trkpt>
      <trkpt lat="42.30366" lon="0.03683">
        <ele>837.7</ele>
        <time>2015-09-24T11:08:56Z</time>
      </trkpt>
      <trkpt lat="42.3037" lon="0.03687">
        <ele>837.3</ele>
        <time>2015-09-24T11:08:57Z</time>
      </trkpt>
      <trkpt lat="42.30375" lon="0.03692">
        <ele>837</ele>
        <time>2015-09-24T11:08:58Z</time>
      </trkpt>
      <trkpt lat="42.3038" lon="0.03695">
        <ele>836.8</ele>
        <time>2015-09-24T11:08:59Z</time>
      </trkpt>
      <trkpt lat="42.30384" lon="0.03699">
        <ele>836.7</ele>
        <time>2015-09-24T11:09:00Z</time>
      </trkpt>
      <trkpt lat="42.30388" lon="0.03703">
        <ele>836.6</ele>
        <time>2015-09-24T11:09:01Z</time>
      </trkpt>
      <trkpt lat="42.30391" lon="0.03707">
        <ele>836.5</ele>
        <time>2015-09-24T11:09:02Z</time>
      </trkpt>
      <trkpt lat="42.30395" lon="0.03711">
        <ele>836.6</ele>
        <time>2015-09-24T11:09:03Z</time>
      </trkpt>
      <trkpt lat="42.30399" lon="0.03714">
        <ele>836.9</ele>
        <time>2015-09-24T11:09:04Z</time>
      </trkpt>
      <trkpt lat="42.30402" lon="0.03718">
        <ele>837.1</ele>
        <time>2015-09-24T11:09:05Z</time>
      </trkpt>
      <trkpt lat="42.30406" lon="0.03721">
        <ele>837.4</ele>
        <time>2015-09-24T11:09:06Z</time>
      </trkpt>
      <trkpt lat="42.30409" lon="0.03725">
        <ele>837.7</ele>
        <time>2015-09-24T11:09:07Z</time>
      </trkpt>
      <trkpt lat="42.30412" lon="0.03728">
        <ele>837.9</ele>
        <time>2015-09-24T11:09:08Z</time>
      </trkpt>
      <trkpt lat="42.30416" lon="0.03731">
        <ele>838.2</ele>
        <time>2015-09-24T11:09:09Z</time>
      </trkpt>
      <trkpt lat="42.30419" lon="0.03734">
        <ele>838.5</ele>
        <time>2015-09-24T11:09:10Z</time>
      </trkpt>
      <trkpt lat="42.30422" lon="0.03738">
        <ele>838.8</ele>
        <time>2015-09-24T11:09:11Z</time>
      </trkpt>
      <trkpt lat="42.30426" lon="0.03742">
        <ele>839.1</ele>
        <time>2015-09-24T11:09:12Z</time>
      </trkpt>
      <trkpt lat="42.3043" lon="0.03745">
        <ele>839.4</ele>
        <time>2015-09-24T11:09:13Z</time>
      </trkpt>
      <trkpt lat="42.30433" lon="0.03748">
        <ele>839.7</ele>
        <time>2015-09-24T11:09:14Z</time>
      </trkpt>
      <trkpt lat="42.30437" lon="0.03752">
        <ele>840</ele>
        <time>2015-09-24T11:09:15Z</time>
      </trkpt>
      <trkpt lat="42.3044" lon="0.03756">
        <ele>840.3</ele>
        <time>2015-09-24T11:09:16Z</time>
      </trkpt>
      <trkpt lat="42.30444" lon="0.03759">
        <ele>840.6</ele>
        <time>2015-09-24T11:09:17Z</time>
      </trkpt>
      <trkpt lat="42.30447" lon="0.03763">
        <ele>840.9</ele>
        <time>2015-09-24T11:09:18Z</time>
      </trkpt>
      <trkpt lat="42.30451" lon="0.03767">
        <ele>841.3</ele>
        <time>2015-09-24T11:09:19Z</time>
      </trkpt>
      <trkpt lat="42.30455" lon="0.0377">
        <ele>841.6</ele>
        <time>2015-09-24T11:09:20Z</time>
      </trkpt>
      <trkpt lat="42.30458" lon="0.03774">
        <ele>841.9</ele>
        <time>2015-09-24T11:09:21Z</time>
      </trkpt>
      <trkpt lat="42.30462" lon="0.03777">
        <ele>842.2</ele>
        <time>2015-09-24T11:09:22Z</time>
      </trkpt>
      <trkpt lat="42.30465" lon="0.03781">
        <ele>842.6</ele>
        <time>2015-09-24T11:09:23Z</time>
      </trkpt>
      <trkpt lat="42.30469" lon="0.03785">
        <ele>842.9</ele>
        <time>2015-09-24T11:09:24Z</time>
      </trkpt>
      <trkpt lat="42.30472" lon="0.03789">
        <ele>843.2</ele>
        <time>2015-09-24T11:09:25Z</time>
      </trkpt>
      <trkpt lat="42.30475" lon="0.03792">
        <ele>843.4</ele>
        <time>2015-09-24T11:09:26Z</time>
      </trkpt>
      <trkpt lat="42.30479" lon="0.03795">
        <ele>843.5</ele>
        <time>2015-09-24T11:09:27Z</time>
      </trkpt>
      <trkpt lat="42.30483" lon="0.03798">
        <ele>843.6</ele>
        <time>2015-09-24T11:09:28Z</time>
      </trkpt>
      <trkpt lat="42.30487" lon="0.03801">
        <ele>843.7</ele>
        <time>2015-09-24T11:09:29Z</time>
      </trkpt>
      <trkpt lat="42.30491" lon="0.03802">
        <ele>843.8</ele>
        <time>2015-09-24T11:09:30Z</time>
      </trkpt>
      <trkpt lat="42.30496" lon="0.03805">
        <ele>844</ele>
        <time>2015-09-24T11:09:31Z</time>
      </trkpt>
      <trkpt lat="42.305" lon="0.03806">
        <ele>844.1</ele>
        <time>2015-09-24T11:09:32Z</time>
      </trkpt>
      <trkpt lat="42.30505" lon="0.03808">
        <ele>844.2</ele>
        <time>2015-09-24T11:09:33Z</time>
      </trkpt>
      <trkpt lat="42.30509" lon="0.03808">
        <ele>844.3</ele>
        <time>2015-09-24T11:09:34Z</time>
      </trkpt>
      <trkpt lat="42.30514" lon="0.03809">
        <ele>844.5</ele>
        <time>2015-09-24T11:09:35Z</time>
      </trkpt>
      <trkpt lat="42.30518" lon="0.03809">
        <ele>844.6</ele>
        <time>2015-09-24T11:09:36Z</time>
      </trkpt>
      <trkpt lat="42.30523" lon="0.0381">
        <ele>844.7</ele>
        <time>2015-09-24T11:09:37Z</time>
      </trkpt>
      <trkpt lat="42.30527" lon="0.03811">
        <ele>844.8</ele>
        <time>2015-09-24T11:09:38Z</time>
      </trkpt>
      <trkpt lat="42.30531" lon="0.03812">
        <ele>845</ele>
        <time>2015-09-24T11:09:39Z</time>
      </trkpt>
      <trkpt lat="42.30535" lon="0.03814">
        <ele>845.1</ele>
        <time>2015-09-24T11:09:40Z</time>
      </trkpt>
      <trkpt lat="42.30539" lon="0.03815">
        <ele>845.2</ele>
        <time>2015-09-24T11:09:41Z</time>
      </trkpt>
      <trkpt lat="42.30543" lon="0.03816">
        <ele>845.3</ele>
        <time>2015-09-24T11:09:42Z</time>
      </trkpt>
      <trkpt lat="42.30547" lon="0.03817">
        <ele>845.3</ele>
        <time>2015-09-24T11:09:43Z</time>
      </trkpt>
      <trkpt lat="42.30551" lon="0.03818">
        <ele>845.3</ele>
        <time>2015-09-24T11:09:44Z</time>
      </trkpt>
      <trkpt lat="42.30555" lon="0.0382">
        <ele>845.3</ele>
        <time>2015-09-24T11:09:45Z</time>
      </trkpt>
      <trkpt lat="42.30558" lon="0.03822">
        <ele>845.3</ele>
        <time>2015-09-24T11:09:46Z</time>
      </trkpt>
      <trkpt lat="42.30562" lon="0.03823">
        <ele>845.3</ele>
        <time>2015-09-24T11:09:47Z</time>
      </trkpt>
      <trkpt lat="42.30566" lon="0.03825">
        <ele>845.3</ele>
        <time>2015-09-24T11:09:48Z</time>
      </trkpt>
      <trkpt lat="42.3057" lon="0.03827">
        <ele>845.3</ele>
        <time>2015-09-24T11:09:49Z</time>
      </trkpt>
      <trkpt lat="42.30573" lon="0.0383">
        <ele>845.3</ele>
        <time>2015-09-24T11:09:50Z</time>
      </trkpt>
      <trkpt lat="42.30576" lon="0.03833">
        <ele>845.3</ele>
        <time>2015-09-24T11:09:51Z</time>
      </trkpt>
      <trkpt lat="42.30579" lon="0.03836">
        <ele>845.3</ele>
        <time>2015-09-24T11:09:52Z</time>
      </trkpt>
      <trkpt lat="42.30581" lon="0.03841">
        <ele>845.3</ele>
        <time>2015-09-24T11:09:53Z</time>
      </trkpt>
      <trkpt lat="42.30582" lon="0.03846">
        <ele>845.3</ele>
        <time>2015-09-24T11:09:54Z</time>
      </trkpt>
      <trkpt lat="42.30582" lon="0.03852">
        <ele>845.4</ele>
        <time>2015-09-24T11:09:55Z</time>
      </trkpt>
      <trkpt lat="42.30582" lon="0.03858">
        <ele>845.4</ele>
        <time>2015-09-24T11:09:56Z</time>
      </trkpt>
      <trkpt lat="42.30578" lon="0.03866">
        <ele>845.5</ele>
        <time>2015-09-24T11:09:57Z</time>
      </trkpt>
      <trkpt lat="42.30576" lon="0.03873">
        <ele>845.6</ele>
        <time>2015-09-24T11:09:58Z</time>
      </trkpt>
      <trkpt lat="42.30574" lon="0.03878">
        <ele>845.8</ele>
        <time>2015-09-24T11:09:59Z</time>
      </trkpt>
      <trkpt lat="42.30571" lon="0.03883">
        <ele>846.1</ele>
        <time>2015-09-24T11:10:00Z</time>
      </trkpt>
      <trkpt lat="42.30568" lon="0.03888">
        <ele>846.4</ele>
        <time>2015-09-24T11:10:01Z</time>
      </trkpt>
      <trkpt lat="42.30566" lon="0.03893">
        <ele>846.7</ele>
        <time>2015-09-24T11:10:02Z</time>
      </trkpt>
      <trkpt lat="42.30563" lon="0.03899">
        <ele>846.9</ele>
        <time>2015-09-24T11:10:03Z</time>
      </trkpt>
      <trkpt lat="42.30561" lon="0.03903">
        <ele>847.2</ele>
        <time>2015-09-24T11:10:04Z</time>
      </trkpt>
      <trkpt lat="42.30558" lon="0.03908">
        <ele>847.5</ele>
        <time>2015-09-24T11:10:05Z</time>
      </trkpt>
      <trkpt lat="42.30556" lon="0.03912">
        <ele>847.7</ele>
        <time>2015-09-24T11:10:06Z</time>
      </trkpt>
      <trkpt lat="42.30553" lon="0.03917">
        <ele>847.9</ele>
        <time>2015-09-24T11:10:07Z</time>
      </trkpt>
      <trkpt lat="42.3055" lon="0.0392">
        <ele>848.1</ele>
        <time>2015-09-24T11:10:08Z</time>
      </trkpt>
      <trkpt lat="42.30548" lon="0.03924">
        <ele>848.3</ele>
        <time>2015-09-24T11:10:09Z</time>
      </trkpt>
      <trkpt lat="42.30546" lon="0.03928">
        <ele>848.5</ele>
        <time>2015-09-24T11:10:10Z</time>
      </trkpt>
      <trkpt lat="42.30544" lon="0.03931">
        <ele>848.7</ele>
        <time>2015-09-24T11:10:11Z</time>
      </trkpt>
      <trkpt lat="42.30541" lon="0.03935">
        <ele>848.8</ele>
        <time>2015-09-24T11:10:12Z</time>
      </trkpt>
      <trkpt lat="42.30539" lon="0.03938">
        <ele>848.9</ele>
        <time>2015-09-24T11:10:13Z</time>
      </trkpt>
      <trkpt lat="42.30537" lon="0.03941">
        <ele>848.9</ele>
        <time>2015-09-24T11:10:14Z</time>
      </trkpt>
      <trkpt lat="42.30534" lon="0.03943">
        <ele>848.9</ele>
        <time>2015-09-24T11:10:15Z</time>
      </trkpt>
      <trkpt lat="42.30531" lon="0.03946">
        <ele>848.8</ele>
        <time>2015-09-24T11:10:16Z</time>
      </trkpt>
      <trkpt lat="42.30529" lon="0.03949">
        <ele>848.8</ele>
        <time>2015-09-24T11:10:17Z</time>
      </trkpt>
      <trkpt lat="42.30527" lon="0.03952">
        <ele>848.8</ele>
        <time>2015-09-24T11:10:18Z</time>
      </trkpt>
      <trkpt lat="42.30525" lon="0.03954">
        <ele>848.8</ele>
        <time>2015-09-24T11:10:19Z</time>
      </trkpt>
      <trkpt lat="42.30523" lon="0.03957">
        <ele>848.8</ele>
        <time>2015-09-24T11:10:20Z</time>
      </trkpt>
      <trkpt lat="42.30521" lon="0.0396">
        <ele>848.9</ele>
        <time>2015-09-24T11:10:21Z</time>
      </trkpt>
      <trkpt lat="42.30518" lon="0.03962">
        <ele>849.1</ele>
        <time>2015-09-24T11:10:22Z</time>
      </trkpt>
      <trkpt lat="42.30516" lon="0.03964">
        <ele>849.2</ele>
        <time>2015-09-24T11:10:23Z</time>
      </trkpt>
      <trkpt lat="42.30513" lon="0.03966">
        <ele>849.2</ele>
        <time>2015-09-24T11:10:24Z</time>
      </trkpt>
      <trkpt lat="42.30511" lon="0.03967">
        <ele>849.3</ele>
        <time>2015-09-24T11:10:25Z</time>
      </trkpt>
      <trkpt lat="42.30508" lon="0.03969">
        <ele>849.4</ele>
        <time>2015-09-24T11:10:26Z</time>
      </trkpt>
      <trkpt lat="42.30505" lon="0.0397">
        <ele>849.4</ele>
        <time>2015-09-24T11:10:27Z</time>
      </trkpt>
      <trkpt lat="42.30503" lon="0.03972">
        <ele>849.4</ele>
        <time>2015-09-24T11:10:28Z</time>
      </trkpt>
      <trkpt lat="42.305" lon="0.03973">
        <ele>849.5</ele>
        <time>2015-09-24T11:10:29Z</time>
      </trkpt>
      <trkpt lat="42.30497" lon="0.03975">
        <ele>849.5</ele>
        <time>2015-09-24T11:10:30Z</time>
      </trkpt>
      <trkpt lat="42.30495" lon="0.03976">
        <ele>849.5</ele>
        <time>2015-09-24T11:10:31Z</time>
      </trkpt>
      <trkpt lat="42.30492" lon="0.03978">
        <ele>849.6</ele>
        <time>2015-09-24T11:10:32Z</time>
      </trkpt>
      <trkpt lat="42.30489" lon="0.0398">
        <ele>849.7</ele>
        <time>2015-09-24T11:10:33Z</time>
      </trkpt>
      <trkpt lat="42.30487" lon="0.03982">
        <ele>849.8</ele>
        <time>2015-09-24T11:10:34Z</time>
      </trkpt>
      <trkpt lat="42.30485" lon="0.03984">
        <ele>850</ele>
        <time>2015-09-24T11:10:35Z</time>
      </trkpt>
      <trkpt lat="42.30483" lon="0.03987">
        <ele>850.2</ele>
        <time>2015-09-24T11:10:36Z</time>
      </trkpt>
      <trkpt lat="42.30481" lon="0.0399">
        <ele>850.6</ele>
        <time>2015-09-24T11:10:37Z</time>
      </trkpt>
      <trkpt lat="42.3048" lon="0.03993">
        <ele>850.9</ele>
        <time>2015-09-24T11:10:38Z</time>
      </trkpt>
      <trkpt lat="42.30478" lon="0.03997">
        <ele>851.3</ele>
        <time>2015-09-24T11:10:39Z</time>
      </trkpt>
      <trkpt lat="42.30477" lon="0.04">
        <ele>851.6</ele>
        <time>2015-09-24T11:10:40Z</time>
      </trkpt>
      <trkpt lat="42.30475" lon="0.04003">
        <ele>851.9</ele>
        <time>2015-09-24T11:10:41Z</time>
      </trkpt>
      <trkpt lat="42.30472" lon="0.04009">
        <ele>852.5</ele>
        <time>2015-09-24T11:10:43Z</time>
      </trkpt>
      <trkpt lat="42.30471" lon="0.04012">
        <ele>852.9</ele>
        <time>2015-09-24T11:10:44Z</time>
      </trkpt>
      <trkpt lat="42.3047" lon="0.04016">
        <ele>853.3</ele>
        <time>2015-09-24T11:10:45Z</time>
      </trkpt>
      <trkpt lat="42.30469" lon="0.04023">
        <ele>854.2</ele>
        <time>2015-09-24T11:10:47Z</time>
      </trkpt>
      <trkpt lat="42.30469" lon="0.04027">
        <ele>854.7</ele>
        <time>2015-09-24T11:10:48Z</time>
      </trkpt>
      <trkpt lat="42.30469" lon="0.04031">
        <ele>855.2</ele>
        <time>2015-09-24T11:10:49Z</time>
      </trkpt>
      <trkpt lat="42.30469" lon="0.04034">
        <ele>855.7</ele>
        <time>2015-09-24T11:10:50Z</time>
      </trkpt>
      <trkpt lat="42.30472" lon="0.04038">
        <ele>856.3</ele>
        <time>2015-09-24T11:10:51Z</time>
      </trkpt>
      <trkpt lat="42.30473" lon="0.04041">
        <ele>856.8</ele>
        <time>2015-09-24T11:10:52Z</time>
      </trkpt>
      <trkpt lat="42.30475" lon="0.04044">
        <ele>857.2</ele>
        <time>2015-09-24T11:10:53Z</time>
      </trkpt>
      <trkpt lat="42.30477" lon="0.04047">
        <ele>857.5</ele>
        <time>2015-09-24T11:10:54Z</time>
      </trkpt>
      <trkpt lat="42.30479" lon="0.0405">
        <ele>857.9</ele>
        <time>2015-09-24T11:10:55Z</time>
      </trkpt>
      <trkpt lat="42.30481" lon="0.04053">
        <ele>858.2</ele>
        <time>2015-09-24T11:10:56Z</time>
      </trkpt>
      <trkpt lat="42.30483" lon="0.04056">
        <ele>858.5</ele>
        <time>2015-09-24T11:10:57Z</time>
      </trkpt>
      <trkpt lat="42.30486" lon="0.04058">
        <ele>858.8</ele>
        <time>2015-09-24T11:10:58Z</time>
      </trkpt>
      <trkpt lat="42.30488" lon="0.04061">
        <ele>859.1</ele>
        <time>2015-09-24T11:10:59Z</time>
      </trkpt>
      <trkpt lat="42.30492" lon="0.04064">
        <ele>859.4</ele>
        <time>2015-09-24T11:11:00Z</time>
      </trkpt>
      <trkpt lat="42.30496" lon="0.04067">
        <ele>859.7</ele>
        <time>2015-09-24T11:11:01Z</time>
      </trkpt>
      <trkpt lat="42.30499" lon="0.04069">
        <ele>860</ele>
        <time>2015-09-24T11:11:02Z</time>
      </trkpt>
      <trkpt lat="42.30505" lon="0.04073">
        <ele>860.3</ele>
        <time>2015-09-24T11:11:03Z</time>
      </trkpt>
      <trkpt lat="42.3051" lon="0.04076">
        <ele>860.6</ele>
        <time>2015-09-24T11:11:04Z</time>
      </trkpt>
      <trkpt lat="42.30516" lon="0.0408">
        <ele>860.9</ele>
        <time>2015-09-24T11:11:05Z</time>
      </trkpt>
      <trkpt lat="42.30522" lon="0.04084">
        <ele>861.1</ele>
        <time>2015-09-24T11:11:06Z</time>
      </trkpt>
      <trkpt lat="42.30529" lon="0.04088">
        <ele>861.4</ele>
        <time>2015-09-24T11:11:07Z</time>
      </trkpt>
      <trkpt lat="42.30536" lon="0.04092">
        <ele>861.5</ele>
        <time>2015-09-24T11:11:08Z</time>
      </trkpt>
      <trkpt lat="42.30543" lon="0.04096">
        <ele>861.6</ele>
        <time>2015-09-24T11:11:09Z</time>
      </trkpt>
      <trkpt lat="42.3055" lon="0.04101">
        <ele>861.4</ele>
        <time>2015-09-24T11:11:10Z</time>
      </trkpt>
      <trkpt lat="42.30557" lon="0.04105">
        <ele>861.3</ele>
        <time>2015-09-24T11:11:11Z</time>
      </trkpt>
      <trkpt lat="42.30564" lon="0.04109">
        <ele>861.1</ele>
        <time>2015-09-24T11:11:12Z</time>
      </trkpt>
      <trkpt lat="42.30572" lon="0.04112">
        <ele>860.8</ele>
        <time>2015-09-24T11:11:13Z</time>
      </trkpt>
      <trkpt lat="42.30578" lon="0.04115">
        <ele>860.6</ele>
        <time>2015-09-24T11:11:14Z</time>
      </trkpt>
      <trkpt lat="42.30586" lon="0.04117">
        <ele>860.4</ele>
        <time>2015-09-24T11:11:15Z</time>
      </trkpt>
      <trkpt lat="42.30594" lon="0.04119">
        <ele>860.1</ele>
        <time>2015-09-24T11:11:16Z</time>
      </trkpt>
      <trkpt lat="42.30603" lon="0.0412">
        <ele>859.8</ele>
        <time>2015-09-24T11:11:17Z</time>
      </trkpt>
      <trkpt lat="42.30612" lon="0.04122">
        <ele>859.5</ele>
        <time>2015-09-24T11:11:18Z</time>
      </trkpt>
      <trkpt lat="42.30622" lon="0.04123">
        <ele>859.1</ele>
        <time>2015-09-24T11:11:19Z</time>
      </trkpt>
      <trkpt lat="42.30631" lon="0.04124">
        <ele>858.5</ele>
        <time>2015-09-24T11:11:20Z</time>
      </trkpt>
      <trkpt lat="42.3064" lon="0.04126">
        <ele>857.8</ele>
        <time>2015-09-24T11:11:21Z</time>
      </trkpt>
      <trkpt lat="42.30647" lon="0.04129">
        <ele>857.1</ele>
        <time>2015-09-24T11:11:22Z</time>
      </trkpt>
      <trkpt lat="42.30654" lon="0.04134">
        <ele>856.4</ele>
        <time>2015-09-24T11:11:23Z</time>
      </trkpt>
      <trkpt lat="42.3066" lon="0.04139">
        <ele>855.6</ele>
        <time>2015-09-24T11:11:24Z</time>
      </trkpt>
      <trkpt lat="42.30666" lon="0.04146">
        <ele>854.8</ele>
        <time>2015-09-24T11:11:25Z</time>
      </trkpt>
      <trkpt lat="42.30671" lon="0.04154">
        <ele>854</ele>
        <time>2015-09-24T11:11:26Z</time>
      </trkpt>
      <trkpt lat="42.30676" lon="0.0416">
        <ele>853.3</ele>
        <time>2015-09-24T11:11:27Z</time>
      </trkpt>
      <trkpt lat="42.30681" lon="0.04165">
        <ele>852.7</ele>
        <time>2015-09-24T11:11:28Z</time>
      </trkpt>
      <trkpt lat="42.30686" lon="0.0417">
        <ele>852.2</ele>
        <time>2015-09-24T11:11:29Z</time>
      </trkpt>
      <trkpt lat="42.30688" lon="0.04173">
        <ele>851.9</ele>
        <time>2015-09-24T11:11:30Z</time>
      </trkpt>
      <trkpt lat="42.30691" lon="0.04176">
        <ele>851.6</ele>
        <time>2015-09-24T11:11:32Z</time>
      </trkpt>
      <trkpt lat="42.30691" lon="0.0418">
        <ele>851.4</ele>
        <time>2015-09-24T11:11:34Z</time>
      </trkpt>
    </trkseg>
  </trk>
  <trk>
    <name><![CDATA[Ainsa 8 et des moustiques]]></name>
    <extensions>
      <line xmlns="http://www.topografix.com/GPX/gpx_style/0/2">
        <color>880088</color>
        <width>4</width>
      </line>
    </extensions>
    <trkseg>
      <trkpt lat="42.49968" lon="0.14376">
        <ele>611.5</ele>
        <time>2016-07-23T08:34:09Z</time>
      </trkpt>
      <trkpt lat="42.49954" lon="0.14368">
        <ele>610.6</ele>
        <time>2016-07-23T08:34:11Z</time>
      </trkpt>
      <trkpt lat="42.49951" lon="0.14374">
        <ele>610.5</ele>
        <time>2016-07-23T08:34:12Z</time>
      </trkpt>
      <trkpt lat="42.4995" lon="0.14367">
        <ele>610.3</ele>
        <time>2016-07-23T08:34:15Z</time>
      </trkpt>
      <trkpt lat="42.49953" lon="0.14372">
        <ele>610.6</ele>
        <time>2016-07-23T08:39:35Z</time>
      </trkpt>
      <trkpt lat="42.4995" lon="0.14374">
        <ele>610.3</ele>
        <time>2016-07-23T08:41:08Z</time>
      </trkpt>
      <trkpt lat="42.49947" lon="0.14371">
        <ele>610.1</ele>
        <time>2016-07-23T08:41:11Z</time>
      </trkpt>
      <trkpt lat="42.49944" lon="0.1437">
        <ele>609.9</ele>
        <time>2016-07-23T08:41:14Z</time>
      </trkpt>
      <trkpt lat="42.49942" lon="0.14374">
        <ele>609.8</ele>
        <time>2016-07-23T08:41:18Z</time>
      </trkpt>
      <trkpt lat="42.49939" lon="0.14377">
        <ele>609.5</ele>
        <time>2016-07-23T08:41:21Z</time>
      </trkpt>
      <trkpt lat="42.49937" lon="0.1438">
        <ele>609.2</ele>
        <time>2016-07-23T08:41:25Z</time>
      </trkpt>
      <trkpt lat="42.49935" lon="0.14383">
        <ele>608.9</ele>
        <time>2016-07-23T08:41:29Z</time>
      </trkpt>
      <trkpt lat="42.49937" lon="0.14386">
        <ele>608.9</ele>
        <time>2016-07-23T08:42:04Z</time>
      </trkpt>
      <trkpt lat="42.49937" lon="0.1439">
        <ele>608.7</ele>
        <time>2016-07-23T08:42:06Z</time>
      </trkpt>
      <trkpt lat="42.49935" lon="0.14396">
        <ele>608.4</ele>
        <time>2016-07-23T08:42:08Z</time>
      </trkpt>
      <trkpt lat="42.49932" lon="0.14398">
        <ele>608.1</ele>
        <time>2016-07-23T08:42:09Z</time>
      </trkpt>
      <trkpt lat="42.49929" lon="0.14399">
        <ele>607.8</ele>
        <time>2016-07-23T08:42:10Z</time>
      </trkpt>
      <trkpt lat="42.49925" lon="0.14399">
        <ele>607.6</ele>
        <time>2016-07-23T08:42:11Z</time>
      </trkpt>
      <trkpt lat="42.4992" lon="0.14399">
        <ele>607.3</ele>
        <time>2016-07-23T08:42:12Z</time>
      </trkpt>
      <trkpt lat="42.49914" lon="0.14398">
        <ele>607</ele>
        <time>2016-07-23T08:42:13Z</time>
      </trkpt>
      <trkpt lat="42.49909" lon="0.14397">
        <ele>606.7</ele>
        <time>2016-07-23T08:42:14Z</time>
      </trkpt>
      <trkpt lat="42.49903" lon="0.14398">
        <ele>606.4</ele>
        <time>2016-07-23T08:42:15Z</time>
      </trkpt>
      <trkpt lat="42.49898" lon="0.14399">
        <ele>606</ele>
        <time>2016-07-23T08:42:16Z</time>
      </trkpt>
      <trkpt lat="42.49892" lon="0.14399">
        <ele>605.7</ele>
        <time>2016-07-23T08:42:17Z</time>
      </trkpt>
      <trkpt lat="42.49886" lon="0.14401">
        <ele>605.3</ele>
        <time>2016-07-23T08:42:18Z</time>
      </trkpt>
      <trkpt lat="42.49879" lon="0.14401">
        <ele>604.9</ele>
        <time>2016-07-23T08:42:19Z</time>
      </trkpt>
      <trkpt lat="42.49872" lon="0.14401">
        <ele>604.6</ele>
        <time>2016-07-23T08:42:20Z</time>
      </trkpt>
      <trkpt lat="42.49866" lon="0.14402">
        <ele>604.5</ele>
        <time>2016-07-23T08:42:21Z</time>
      </trkpt>
      <trkpt lat="42.49859" lon="0.14402">
        <ele>604.3</ele>
        <time>2016-07-23T08:42:22Z</time>
      </trkpt>
      <trkpt lat="42.49851" lon="0.14403">
        <ele>604.1</ele>
        <time>2016-07-23T08:42:23Z</time>
      </trkpt>
      <trkpt lat="42.49844" lon="0.14404">
        <ele>603.9</ele>
        <time>2016-07-23T08:42:24Z</time>
      </trkpt>
      <trkpt lat="42.49836" lon="0.14405">
        <ele>603.7</ele>
        <time>2016-07-23T08:42:25Z</time>
      </trkpt>
      <trkpt lat="42.49829" lon="0.14406">
        <ele>603.5</ele>
        <time>2016-07-23T08:42:26Z</time>
      </trkpt>
      <trkpt lat="42.49821" lon="0.14408">
        <ele>603.3</ele>
        <time>2016-07-23T08:42:27Z</time>
      </trkpt>
      <trkpt lat="42.49813" lon="0.14409">
        <ele>603.1</ele>
        <time>2016-07-23T08:42:28Z</time>
      </trkpt>
      <trkpt lat="42.49807" lon="0.1441">
        <ele>602.9</ele>
        <time>2016-07-23T08:42:29Z</time>
      </trkpt>
      <trkpt lat="42.498" lon="0.14412">
        <ele>602.7</ele>
        <time>2016-07-23T08:42:30Z</time>
      </trkpt>
      <trkpt lat="42.49793" lon="0.14413">
        <ele>602.6</ele>
        <time>2016-07-23T08:42:31Z</time>
      </trkpt>
      <trkpt lat="42.49787" lon="0.14413">
        <ele>602.8</ele>
        <time>2016-07-23T08:42:32Z</time>
      </trkpt>
      <trkpt lat="42.4978" lon="0.14414">
        <ele>603.2</ele>
        <time>2016-07-23T08:42:33Z</time>
      </trkpt>
      <trkpt lat="42.49774" lon="0.14414">
        <ele>603.5</ele>
        <time>2016-07-23T08:42:34Z</time>
      </trkpt>
      <trkpt lat="42.49769" lon="0.14413">
        <ele>603.8</ele>
        <time>2016-07-23T08:42:35Z</time>
      </trkpt>
      <trkpt lat="42.49764" lon="0.14413">
        <ele>604.1</ele>
        <time>2016-07-23T08:42:36Z</time>
      </trkpt>
      <trkpt lat="42.4976" lon="0.14411">
        <ele>604.4</ele>
        <time>2016-07-23T08:42:37Z</time>
      </trkpt>
      <trkpt lat="42.49756" lon="0.1441">
        <ele>604.7</ele>
        <time>2016-07-23T08:42:38Z</time>
      </trkpt>
      <trkpt lat="42.49752" lon="0.14411">
        <ele>604.9</ele>
        <time>2016-07-23T08:42:39Z</time>
      </trkpt>
      <trkpt lat="42.49749" lon="0.14412">
        <ele>605</ele>
        <time>2016-07-23T08:42:40Z</time>
      </trkpt>
      <trkpt lat="42.49745" lon="0.14413">
        <ele>605.2</ele>
        <time>2016-07-23T08:42:41Z</time>
      </trkpt>
      <trkpt lat="42.4974" lon="0.14413">
        <ele>605.5</ele>
        <time>2016-07-23T08:42:42Z</time>
      </trkpt>
      <trkpt lat="42.49735" lon="0.14414">
        <ele>605.7</ele>
        <time>2016-07-23T08:42:43Z</time>
      </trkpt>
      <trkpt lat="42.4973" lon="0.14415">
        <ele>606</ele>
        <time>2016-07-23T08:42:44Z</time>
      </trkpt>
      <trkpt lat="42.49724" lon="0.14414">
        <ele>606.3</ele>
        <time>2016-07-23T08:42:45Z</time>
      </trkpt>
      <trkpt lat="42.49717" lon="0.14414">
        <ele>606.7</ele>
        <time>2016-07-23T08:42:46Z</time>
      </trkpt>
      <trkpt lat="42.49711" lon="0.14417">
        <ele>606.9</ele>
        <time>2016-07-23T08:42:47Z</time>
      </trkpt>
      <trkpt lat="42.49705" lon="0.14422">
        <ele>607.9</ele>
        <time>2016-07-23T08:42:48Z</time>
      </trkpt>
      <trkpt lat="42.49702" lon="0.1443">
        <ele>608.3</ele>
        <time>2016-07-23T08:42:49Z</time>
      </trkpt>
      <trkpt lat="42.49701" lon="0.14438">
        <ele>607.9</ele>
        <time>2016-07-23T08:42:50Z</time>
      </trkpt>
      <trkpt lat="42.497" lon="0.14447">
        <ele>607.6</ele>
        <time>2016-07-23T08:42:51Z</time>
      </trkpt>
      <trkpt lat="42.49701" lon="0.14455">
        <ele>606.8</ele>
        <time>2016-07-23T08:42:52Z</time>
      </trkpt>
      <trkpt lat="42.49702" lon="0.14463">
        <ele>605.9</ele>
        <time>2016-07-23T08:42:53Z</time>
      </trkpt>
      <trkpt lat="42.49703" lon="0.1447">
        <ele>605.2</ele>
        <time>2016-07-23T08:42:54Z</time>
      </trkpt>
      <trkpt lat="42.49703" lon="0.14477">
        <ele>604.7</ele>
        <time>2016-07-23T08:42:55Z</time>
      </trkpt>
      <trkpt lat="42.49704" lon="0.14484">
        <ele>604.1</ele>
        <time>2016-07-23T08:42:56Z</time>
      </trkpt>
      <trkpt lat="42.49705" lon="0.14492">
        <ele>603.7</ele>
        <time>2016-07-23T08:42:57Z</time>
      </trkpt>
      <trkpt lat="42.49706" lon="0.14498">
        <ele>603.1</ele>
        <time>2016-07-23T08:42:58Z</time>
      </trkpt>
      <trkpt lat="42.49708" lon="0.14505">
        <ele>602.4</ele>
        <time>2016-07-23T08:42:59Z</time>
      </trkpt>
      <trkpt lat="42.4971" lon="0.14512">
        <ele>602.1</ele>
        <time>2016-07-23T08:43:00Z</time>
      </trkpt>
      <trkpt lat="42.49712" lon="0.14518">
        <ele>601.8</ele>
        <time>2016-07-23T08:43:01Z</time>
      </trkpt>
      <trkpt lat="42.49715" lon="0.14524">
        <ele>601.6</ele>
        <time>2016-07-23T08:43:02Z</time>
      </trkpt>
      <trkpt lat="42.49718" lon="0.14528">
        <ele>601.4</ele>
        <time>2016-07-23T08:43:03Z</time>
      </trkpt>
      <trkpt lat="42.49722" lon="0.14533">
        <ele>601.3</ele>
        <time>2016-07-23T08:43:04Z</time>
      </trkpt>
      <trkpt lat="42.49726" lon="0.14537">
        <ele>601.2</ele>
        <time>2016-07-23T08:43:05Z</time>
      </trkpt>
      <trkpt lat="42.4973" lon="0.1454">
        <ele>601</ele>
        <time>2016-07-23T08:43:06Z</time>
      </trkpt>
      <trkpt lat="42.49735" lon="0.14545">
        <ele>601</ele>
        <time>2016-07-23T08:43:07Z</time>
      </trkpt>
      <trkpt lat="42.49739" lon="0.14548">
        <ele>600.9</ele>
        <time>2016-07-23T08:43:08Z</time>
      </trkpt>
      <trkpt lat="42.49744" lon="0.14551">
        <ele>600.9</ele>
        <time>2016-07-23T08:43:09Z</time>
      </trkpt>
      <trkpt lat="42.49749" lon="0.14555">
        <ele>600.9</ele>
        <time>2016-07-23T08:43:10Z</time>
      </trkpt>
      <trkpt lat="42.49754" lon="0.14558">
        <ele>600.9</ele>
        <time>2016-07-23T08:43:11Z</time>
      </trkpt>
      <trkpt lat="42.49759" lon="0.14561">
        <ele>601</ele>
        <time>2016-07-23T08:43:12Z</time>
      </trkpt>
      <trkpt lat="42.49763" lon="0.14563">
        <ele>601</ele>
        <time>2016-07-23T08:43:13Z</time>
      </trkpt>
      <trkpt lat="42.49768" lon="0.14566">
        <ele>601</ele>
        <time>2016-07-23T08:43:14Z</time>
      </trkpt>
      <trkpt lat="42.4977" lon="0.14568">
        <ele>601.1</ele>
        <time>2016-07-23T08:43:15Z</time>
      </trkpt>
      <trkpt lat="42.49773" lon="0.14569">
        <ele>601.1</ele>
        <time>2016-07-23T08:43:16Z</time>
      </trkpt>
      <trkpt lat="42.49776" lon="0.1457">
        <ele>601.1</ele>
        <time>2016-07-23T08:43:18Z</time>
      </trkpt>
      <trkpt lat="42.49778" lon="0.14565">
        <ele>601.1</ele>
        <time>2016-07-23T08:43:39Z</time>
      </trkpt>
      <trkpt lat="42.49781" lon="0.14567">
        <ele>601.2</ele>
        <time>2016-07-23T08:44:19Z</time>
      </trkpt>
      <trkpt lat="42.49784" lon="0.14567">
        <ele>601.2</ele>
        <time>2016-07-23T08:44:22Z</time>
      </trkpt>
      <trkpt lat="42.49787" lon="0.14569">
        <ele>601.3</ele>
        <time>2016-07-23T08:44:24Z</time>
      </trkpt>
      <trkpt lat="42.4979" lon="0.14571">
        <ele>601.3</ele>
        <time>2016-07-23T08:44:26Z</time>
      </trkpt>
      <trkpt lat="42.49795" lon="0.14573">
        <ele>601.4</ele>
        <time>2016-07-23T08:44:28Z</time>
      </trkpt>
      <trkpt lat="42.498" lon="0.14576">
        <ele>601.4</ele>
        <time>2016-07-23T08:44:30Z</time>
      </trkpt>
      <trkpt lat="42.49803" lon="0.14578">
        <ele>601.4</ele>
        <time>2016-07-23T08:44:31Z</time>
      </trkpt>
      <trkpt lat="42.49806" lon="0.1458">
        <ele>601.4</ele>
        <time>2016-07-23T08:44:32Z</time>
      </trkpt>
      <trkpt lat="42.49809" lon="0.14582">
        <ele>601.4</ele>
        <time>2016-07-23T08:44:33Z</time>
      </trkpt>
      <trkpt lat="42.49813" lon="0.14584">
        <ele>601.4</ele>
        <time>2016-07-23T08:44:34Z</time>
      </trkpt>
      <trkpt lat="42.49816" lon="0.14586">
        <ele>601.4</ele>
        <time>2016-07-23T08:44:35Z</time>
      </trkpt>
      <trkpt lat="42.4982" lon="0.14588">
        <ele>601.3</ele>
        <time>2016-07-23T08:44:36Z</time>
      </trkpt>
      <trkpt lat="42.49823" lon="0.14591">
        <ele>601.3</ele>
        <time>2016-07-23T08:44:37Z</time>
      </trkpt>
      <trkpt lat="42.49827" lon="0.14593">
        <ele>601.3</ele>
        <time>2016-07-23T08:44:38Z</time>
      </trkpt>
      <trkpt lat="42.49831" lon="0.14595">
        <ele>601.2</ele>
        <time>2016-07-23T08:44:39Z</time>
      </trkpt>
      <trkpt lat="42.49835" lon="0.14597">
        <ele>601.1</ele>
        <time>2016-07-23T08:44:40Z</time>
      </trkpt>
      <trkpt lat="42.49839" lon="0.14599">
        <ele>601.1</ele>
        <time>2016-07-23T08:44:41Z</time>
      </trkpt>
      <trkpt lat="42.49844" lon="0.14601">
        <ele>601</ele>
        <time>2016-07-23T08:44:42Z</time>
      </trkpt>
      <trkpt lat="42.49848" lon="0.14603">
        <ele>600.9</ele>
        <time>2016-07-23T08:44:43Z</time>
      </trkpt>
      <trkpt lat="42.49852" lon="0.14606">
        <ele>600.8</ele>
        <time>2016-07-23T08:44:44Z</time>
      </trkpt>
      <trkpt lat="42.49856" lon="0.14607">
        <ele>600.7</ele>
        <time>2016-07-23T08:44:45Z</time>
      </trkpt>
      <trkpt lat="42.4986" lon="0.14609">
        <ele>600.6</ele>
        <time>2016-07-23T08:44:46Z</time>
      </trkpt>
      <trkpt lat="42.49865" lon="0.14611">
        <ele>600.5</ele>
        <time>2016-07-23T08:44:47Z</time>
      </trkpt>
      <trkpt lat="42.49869" lon="0.14613">
        <ele>600.4</ele>
        <time>2016-07-23T08:44:48Z</time>
      </trkpt>
      <trkpt lat="42.49873" lon="0.14615">
        <ele>600.3</ele>
        <time>2016-07-23T08:44:49Z</time>
      </trkpt>
      <trkpt lat="42.49878" lon="0.14617">
        <ele>600.2</ele>
        <time>2016-07-23T08:44:50Z</time>
      </trkpt>
      <trkpt lat="42.49882" lon="0.14619">
        <ele>600.1</ele>
        <time>2016-07-23T08:44:51Z</time>
      </trkpt>
      <trkpt lat="42.49886" lon="0.14621">
        <ele>600.1</ele>
        <time>2016-07-23T08:44:52Z</time>
      </trkpt>
      <trkpt lat="42.49892" lon="0.14623">
        <ele>600.1</ele>
        <time>2016-07-23T08:44:53Z</time>
      </trkpt>
      <trkpt lat="42.49896" lon="0.14624">
        <ele>600</ele>
        <time>2016-07-23T08:44:54Z</time>
      </trkpt>
      <trkpt lat="42.499" lon="0.14627">
        <ele>600</ele>
        <time>2016-07-23T08:44:55Z</time>
      </trkpt>
      <trkpt lat="42.49904" lon="0.1463">
        <ele>599.9</ele>
        <time>2016-07-23T08:44:56Z</time>
      </trkpt>
      <trkpt lat="42.49909" lon="0.14632">
        <ele>599.9</ele>
        <time>2016-07-23T08:44:57Z</time>
      </trkpt>
      <trkpt lat="42.49913" lon="0.14634">
        <ele>599.9</ele>
        <time>2016-07-23T08:44:58Z</time>
      </trkpt>
      <trkpt lat="42.49917" lon="0.14636">
        <ele>599.9</ele>
        <time>2016-07-23T08:44:59Z</time>
      </trkpt>
      <trkpt lat="42.49922" lon="0.14638">
        <ele>600</ele>
        <time>2016-07-23T08:45:00Z</time>
      </trkpt>
      <trkpt lat="42.49927" lon="0.1464">
        <ele>600</ele>
        <time>2016-07-23T08:45:01Z</time>
      </trkpt>
      <trkpt lat="42.49931" lon="0.14642">
        <ele>600</ele>
        <time>2016-07-23T08:45:02Z</time>
      </trkpt>
      <trkpt lat="42.49935" lon="0.14643">
        <ele>600</ele>
        <time>2016-07-23T08:45:03Z</time>
      </trkpt>
      <trkpt lat="42.49939" lon="0.14646">
        <ele>600.1</ele>
        <time>2016-07-23T08:45:04Z</time>
      </trkpt>
      <trkpt lat="42.49943" lon="0.14648">
        <ele>600.1</ele>
        <time>2016-07-23T08:45:05Z</time>
      </trkpt>
      <trkpt lat="42.49947" lon="0.1465">
        <ele>600.2</ele>
        <time>2016-07-23T08:45:06Z</time>
      </trkpt>
      <trkpt lat="42.49952" lon="0.14651">
        <ele>600.2</ele>
        <time>2016-07-23T08:45:07Z</time>
      </trkpt>
      <trkpt lat="42.49956" lon="0.14653">
        <ele>600.3</ele>
        <time>2016-07-23T08:45:08Z</time>
      </trkpt>
      <trkpt lat="42.4996" lon="0.14655">
        <ele>600.4</ele>
        <time>2016-07-23T08:45:09Z</time>
      </trkpt>
      <trkpt lat="42.49964" lon="0.14657">
        <ele>600.4</ele>
        <time>2016-07-23T08:45:10Z</time>
      </trkpt>
      <trkpt lat="42.49969" lon="0.14659">
        <ele>600.5</ele>
        <time>2016-07-23T08:45:11Z</time>
      </trkpt>
      <trkpt lat="42.49973" lon="0.14661">
        <ele>600.5</ele>
        <time>2016-07-23T08:45:12Z</time>
      </trkpt>
      <trkpt lat="42.49977" lon="0.14663">
        <ele>600.6</ele>
        <time>2016-07-23T08:45:13Z</time>
      </trkpt>
      <trkpt lat="42.49982" lon="0.14665">
        <ele>600.6</ele>
        <time>2016-07-23T08:45:14Z</time>
      </trkpt>
      <trkpt lat="42.49986" lon="0.14667">
        <ele>600.7</ele>
        <time>2016-07-23T08:45:15Z</time>
      </trkpt>
      <trkpt lat="42.4999" lon="0.1467">
        <ele>600.7</ele>
        <time>2016-07-23T08:45:16Z</time>
      </trkpt>
      <trkpt lat="42.49994" lon="0.14671">
        <ele>600.7</ele>
        <time>2016-07-23T08:45:17Z</time>
      </trkpt>
      <trkpt lat="42.49999" lon="0.14673">
        <ele>600.8</ele>
        <time>2016-07-23T08:45:18Z</time>
      </trkpt>
      <trkpt lat="42.50003" lon="0.14675">
        <ele>600.8</ele>
        <time>2016-07-23T08:45:19Z</time>
      </trkpt>
      <trkpt lat="42.50008" lon="0.14676">
        <ele>600.8</ele>
        <time>2016-07-23T08:45:20Z</time>
      </trkpt>
      <trkpt lat="42.50012" lon="0.14679">
        <ele>600.9</ele>
        <time>2016-07-23T08:45:21Z</time>
      </trkpt>
      <trkpt lat="42.50017" lon="0.1468">
        <ele>600.9</ele>
        <time>2016-07-23T08:45:22Z</time>
      </trkpt>
      <trkpt lat="42.50022" lon="0.14682">
        <ele>600.9</ele>
        <time>2016-07-23T08:45:23Z</time>
      </trkpt>
      <trkpt lat="42.50027" lon="0.14684">
        <ele>600.9</ele>
        <time>2016-07-23T08:45:24Z</time>
      </trkpt>
      <trkpt lat="42.50031" lon="0.14685">
        <ele>601</ele>
        <time>2016-07-23T08:45:25Z</time>
      </trkpt>
      <trkpt lat="42.50036" lon="0.14687">
        <ele>601</ele>
        <time>2016-07-23T08:45:26Z</time>
      </trkpt>
      <trkpt lat="42.50041" lon="0.1469">
        <ele>601</ele>
        <time>2016-07-23T08:45:27Z</time>
      </trkpt>
      <trkpt lat="42.50045" lon="0.14692">
        <ele>601.1</ele>
        <time>2016-07-23T08:45:28Z</time>
      </trkpt>
      <trkpt lat="42.50049" lon="0.14695">
        <ele>601.2</ele>
        <time>2016-07-23T08:45:29Z</time>
      </trkpt>
      <trkpt lat="42.50054" lon="0.14697">
        <ele>601.4</ele>
        <time>2016-07-23T08:45:30Z</time>
      </trkpt>
      <trkpt lat="42.50059" lon="0.14699">
        <ele>601.5</ele>
        <time>2016-07-23T08:45:31Z</time>
      </trkpt>
      <trkpt lat="42.50064" lon="0.14701">
        <ele>601.6</ele>
        <time>2016-07-23T08:45:32Z</time>
      </trkpt>
      <trkpt lat="42.50068" lon="0.14703">
        <ele>601.7</ele>
        <time>2016-07-23T08:45:33Z</time>
      </trkpt>
      <trkpt lat="42.50073" lon="0.14705">
        <ele>601.8</ele>
        <time>2016-07-23T08:45:34Z</time>
      </trkpt>
      <trkpt lat="42.50078" lon="0.14707">
        <ele>601.9</ele>
        <time>2016-07-23T08:45:35Z</time>
      </trkpt>
      <trkpt lat="42.50083" lon="0.14709">
        <ele>602</ele>
        <time>2016-07-23T08:45:36Z</time>
      </trkpt>
      <trkpt lat="42.50088" lon="0.14711">
        <ele>602.1</ele>
        <time>2016-07-23T08:45:37Z</time>
      </trkpt>
      <trkpt lat="42.50092" lon="0.14713">
        <ele>602.1</ele>
        <time>2016-07-23T08:45:38Z</time>
      </trkpt>
      <trkpt lat="42.50097" lon="0.14715">
        <ele>602.2</ele>
        <time>2016-07-23T08:45:39Z</time>
      </trkpt>
      <trkpt lat="42.50102" lon="0.14717">
        <ele>602.3</ele>
        <time>2016-07-23T08:45:40Z</time>
      </trkpt>
      <trkpt lat="42.50107" lon="0.14718">
        <ele>602.4</ele>
        <time>2016-07-23T08:45:41Z</time>
      </trkpt>
      <trkpt lat="42.50111" lon="0.1472">
        <ele>602.5</ele>
        <time>2016-07-23T08:45:42Z</time>
      </trkpt>
      <trkpt lat="42.50116" lon="0.14721">
        <ele>602.6</ele>
        <time>2016-07-23T08:45:43Z</time>
      </trkpt>
      <trkpt lat="42.50121" lon="0.14724">
        <ele>602.7</ele>
        <time>2016-07-23T08:45:44Z</time>
      </trkpt>
      <trkpt lat="42.50125" lon="0.14726">
        <ele>602.8</ele>
        <time>2016-07-23T08:45:45Z</time>
      </trkpt>
      <trkpt lat="42.5013" lon="0.14727">
        <ele>602.9</ele>
        <time>2016-07-23T08:45:46Z</time>
      </trkpt>
      <trkpt lat="42.50135" lon="0.14729">
        <ele>603</ele>
        <time>2016-07-23T08:45:47Z</time>
      </trkpt>
      <trkpt lat="42.50139" lon="0.1473">
        <ele>603.2</ele>
        <time>2016-07-23T08:45:48Z</time>
      </trkpt>
      <trkpt lat="42.50144" lon="0.14733">
        <ele>603.3</ele>
        <time>2016-07-23T08:45:49Z</time>
      </trkpt>
      <trkpt lat="42.50149" lon="0.14733">
        <ele>603.4</ele>
        <time>2016-07-23T08:45:50Z</time>
      </trkpt>
      <trkpt lat="42.50153" lon="0.14736">
        <ele>603.5</ele>
        <time>2016-07-23T08:45:51Z</time>
      </trkpt>
      <trkpt lat="42.50158" lon="0.14738">
        <ele>603.5</ele>
        <time>2016-07-23T08:45:52Z</time>
      </trkpt>
      <trkpt lat="42.50163" lon="0.1474">
        <ele>603.6</ele>
        <time>2016-07-23T08:45:53Z</time>
      </trkpt>
      <trkpt lat="42.50168" lon="0.14742">
        <ele>603.7</ele>
        <time>2016-07-23T08:45:54Z</time>
      </trkpt>
      <trkpt lat="42.50173" lon="0.14743">
        <ele>603.8</ele>
        <time>2016-07-23T08:45:55Z</time>
      </trkpt>
      <trkpt lat="42.50177" lon="0.14745">
        <ele>603.9</ele>
        <time>2016-07-23T08:45:56Z</time>
      </trkpt>
      <trkpt lat="42.50182" lon="0.14746">
        <ele>604</ele>
        <time>2016-07-23T08:45:57Z</time>
      </trkpt>
      <trkpt lat="42.50187" lon="0.14748">
        <ele>604.1</ele>
        <time>2016-07-23T08:45:58Z</time>
      </trkpt>
      <trkpt lat="42.50192" lon="0.1475">
        <ele>604.1</ele>
        <time>2016-07-23T08:45:59Z</time>
      </trkpt>
      <trkpt lat="42.50197" lon="0.14751">
        <ele>604.2</ele>
        <time>2016-07-23T08:46:00Z</time>
      </trkpt>
      <trkpt lat="42.50202" lon="0.14753">
        <ele>604.2</ele>
        <time>2016-07-23T08:46:01Z</time>
      </trkpt>
      <trkpt lat="42.50207" lon="0.14754">
        <ele>604.3</ele>
        <time>2016-07-23T08:46:02Z</time>
      </trkpt>
      <trkpt lat="42.5021" lon="0.14755">
        <ele>604.4</ele>
        <time>2016-07-23T08:46:03Z</time>
      </trkpt>
      <trkpt lat="42.50215" lon="0.14758">
        <ele>604.6</ele>
        <time>2016-07-23T08:46:04Z</time>
      </trkpt>
      <trkpt lat="42.5022" lon="0.14759">
        <ele>604.8</ele>
        <time>2016-07-23T08:46:05Z</time>
      </trkpt>
      <trkpt lat="42.50225" lon="0.1476">
        <ele>605.1</ele>
        <time>2016-07-23T08:46:06Z</time>
      </trkpt>
      <trkpt lat="42.50229" lon="0.14761">
        <ele>605.3</ele>
        <time>2016-07-23T08:46:07Z</time>
      </trkpt>
      <trkpt lat="42.50233" lon="0.14761">
        <ele>605.6</ele>
        <time>2016-07-23T08:46:08Z</time>
      </trkpt>
      <trkpt lat="42.50238" lon="0.1476">
        <ele>605.9</ele>
        <time>2016-07-23T08:46:09Z</time>
      </trkpt>
      <trkpt lat="42.50243" lon="0.14758">
        <ele>606.2</ele>
        <time>2016-07-23T08:46:10Z</time>
      </trkpt>
      <trkpt lat="42.50248" lon="0.14758">
        <ele>606.5</ele>
        <time>2016-07-23T08:46:11Z</time>
      </trkpt>
      <trkpt lat="42.50252" lon="0.14758">
        <ele>606.7</ele>
        <time>2016-07-23T08:46:12Z</time>
      </trkpt>
      <trkpt lat="42.50257" lon="0.14759">
        <ele>607</ele>
        <time>2016-07-23T08:46:13Z</time>
      </trkpt>
      <trkpt lat="42.50262" lon="0.1476">
        <ele>607.2</ele>
        <time>2016-07-23T08:46:14Z</time>
      </trkpt>
      <trkpt lat="42.50267" lon="0.14762">
        <ele>607.4</ele>
        <time>2016-07-23T08:46:15Z</time>
      </trkpt>
      <trkpt lat="42.50272" lon="0.14763">
        <ele>607.6</ele>
        <time>2016-07-23T08:46:16Z</time>
      </trkpt>
      <trkpt lat="42.50277" lon="0.14763">
        <ele>607.9</ele>
        <time>2016-07-23T08:46:17Z</time>
      </trkpt>
      <trkpt lat="42.50281" lon="0.14764">
        <ele>608.1</ele>
        <time>2016-07-23T08:46:18Z</time>
      </trkpt>
      <trkpt lat="42.50285" lon="0.14765">
        <ele>608.3</ele>
        <time>2016-07-23T08:46:19Z</time>
      </trkpt>
      <trkpt lat="42.5029" lon="0.14764">
        <ele>608.6</ele>
        <time>2016-07-23T08:46:20Z</time>
      </trkpt>
      <trkpt lat="42.50294" lon="0.14762">
        <ele>608.8</ele>
        <time>2016-07-23T08:46:21Z</time>
      </trkpt>
      <trkpt lat="42.50298" lon="0.14759">
        <ele>609</ele>
        <time>2016-07-23T08:46:22Z</time>
      </trkpt>
      <trkpt lat="42.50303" lon="0.14756">
        <ele>609.3</ele>
        <time>2016-07-23T08:46:23Z</time>
      </trkpt>
      <trkpt lat="42.50308" lon="0.14754">
        <ele>609.5</ele>
        <time>2016-07-23T08:46:24Z</time>
      </trkpt>
      <trkpt lat="42.50313" lon="0.14753">
        <ele>609.6</ele>
        <time>2016-07-23T08:46:25Z</time>
      </trkpt>
      <trkpt lat="42.50318" lon="0.14754">
        <ele>609.6</ele>
        <time>2016-07-23T08:46:26Z</time>
      </trkpt>
      <trkpt lat="42.50324" lon="0.14753">
        <ele>609.7</ele>
        <time>2016-07-23T08:46:27Z</time>
      </trkpt>
      <trkpt lat="42.50329" lon="0.14752">
        <ele>609.9</ele>
        <time>2016-07-23T08:46:28Z</time>
      </trkpt>
      <trkpt lat="42.50333" lon="0.1475">
        <ele>610</ele>
        <time>2016-07-23T08:46:29Z</time>
      </trkpt>
      <trkpt lat="42.50338" lon="0.14748">
        <ele>610.1</ele>
        <time>2016-07-23T08:46:30Z</time>
      </trkpt>
      <trkpt lat="42.50342" lon="0.14747">
        <ele>610.2</ele>
        <time>2016-07-23T08:46:31Z</time>
      </trkpt>
      <trkpt lat="42.50347" lon="0.14748">
        <ele>610.3</ele>
        <time>2016-07-23T08:46:32Z</time>
      </trkpt>
      <trkpt lat="42.50353" lon="0.14749">
        <ele>610.3</ele>
        <time>2016-07-23T08:46:33Z</time>
      </trkpt>
      <trkpt lat="42.50357" lon="0.14749">
        <ele>610.3</ele>
        <time>2016-07-23T08:46:34Z</time>
      </trkpt>
      <trkpt lat="42.50361" lon="0.14748">
        <ele>610.4</ele>
        <time>2016-07-23T08:46:35Z</time>
      </trkpt>
      <trkpt lat="42.50367" lon="0.14748">
        <ele>610.5</ele>
        <time>2016-07-23T08:46:36Z</time>
      </trkpt>
      <trkpt lat="42.50372" lon="0.14749">
        <ele>610.5</ele>
        <time>2016-07-23T08:46:37Z</time>
      </trkpt>
      <trkpt lat="42.50377" lon="0.14749">
        <ele>610.5</ele>
        <time>2016-07-23T08:46:38Z</time>
      </trkpt>
      <trkpt lat="42.50382" lon="0.14749">
        <ele>610.5</ele>
        <time>2016-07-23T08:46:39Z</time>
      </trkpt>
      <trkpt lat="42.50387" lon="0.14748">
        <ele>610.4</ele>
        <time>2016-07-23T08:46:40Z</time>
      </trkpt>
      <trkpt lat="42.50392" lon="0.14749">
        <ele>610.3</ele>
        <time>2016-07-23T08:46:41Z</time>
      </trkpt>
      <trkpt lat="42.50398" lon="0.14749">
        <ele>610.3</ele>
        <time>2016-07-23T08:46:42Z</time>
      </trkpt>
      <trkpt lat="42.50403" lon="0.14748">
        <ele>610.2</ele>
        <time>2016-07-23T08:46:43Z</time>
      </trkpt>
      <trkpt lat="42.50408" lon="0.14748">
        <ele>610.2</ele>
        <time>2016-07-23T08:46:44Z</time>
      </trkpt>
      <trkpt lat="42.50414" lon="0.14747">
        <ele>610.1</ele>
        <time>2016-07-23T08:46:45Z</time>
      </trkpt>
      <trkpt lat="42.50419" lon="0.14746">
        <ele>610.1</ele>
        <time>2016-07-23T08:46:46Z</time>
      </trkpt>
      <trkpt lat="42.50424" lon="0.14746">
        <ele>610.1</ele>
        <time>2016-07-23T08:46:47Z</time>
      </trkpt>
      <trkpt lat="42.5043" lon="0.14745">
        <ele>610</ele>
        <time>2016-07-23T08:46:48Z</time>
      </trkpt>
      <trkpt lat="42.50435" lon="0.14746">
        <ele>609.9</ele>
        <time>2016-07-23T08:46:49Z</time>
      </trkpt>
      <trkpt lat="42.50439" lon="0.14745">
        <ele>609.9</ele>
        <time>2016-07-23T08:46:50Z</time>
      </trkpt>
      <trkpt lat="42.50444" lon="0.14746">
        <ele>609.8</ele>
        <time>2016-07-23T08:46:51Z</time>
      </trkpt>
      <trkpt lat="42.50449" lon="0.14746">
        <ele>609.8</ele>
        <time>2016-07-23T08:46:52Z</time>
      </trkpt>
      <trkpt lat="42.50454" lon="0.14746">
        <ele>609.7</ele>
        <time>2016-07-23T08:46:53Z</time>
      </trkpt>
      <trkpt lat="42.5046" lon="0.14745">
        <ele>609.7</ele>
        <time>2016-07-23T08:46:54Z</time>
      </trkpt>
      <trkpt lat="42.50465" lon="0.14745">
        <ele>609.7</ele>
        <time>2016-07-23T08:46:55Z</time>
      </trkpt>
      <trkpt lat="42.5047" lon="0.14745">
        <ele>609.8</ele>
        <time>2016-07-23T08:46:56Z</time>
      </trkpt>
      <trkpt lat="42.50476" lon="0.14744">
        <ele>609.8</ele>
        <time>2016-07-23T08:46:57Z</time>
      </trkpt>
      <trkpt lat="42.50481" lon="0.14743">
        <ele>609.9</ele>
        <time>2016-07-23T08:46:58Z</time>
      </trkpt>
      <trkpt lat="42.50486" lon="0.14742">
        <ele>609.9</ele>
        <time>2016-07-23T08:46:59Z</time>
      </trkpt>
      <trkpt lat="42.50491" lon="0.1474">
        <ele>610</ele>
        <time>2016-07-23T08:47:00Z</time>
      </trkpt>
      <trkpt lat="42.50497" lon="0.14738">
        <ele>610.1</ele>
        <time>2016-07-23T08:47:01Z</time>
      </trkpt>
      <trkpt lat="42.50502" lon="0.14737">
        <ele>610.2</ele>
        <time>2016-07-23T08:47:02Z</time>
      </trkpt>
      <trkpt lat="42.50506" lon="0.14734">
        <ele>610.3</ele>
        <time>2016-07-23T08:47:03Z</time>
      </trkpt>
      <trkpt lat="42.50511" lon="0.14731">
        <ele>610.4</ele>
        <time>2016-07-23T08:47:04Z</time>
      </trkpt>
      <trkpt lat="42.50515" lon="0.14728">
        <ele>610.4</ele>
        <time>2016-07-23T08:47:05Z</time>
      </trkpt>
      <trkpt lat="42.5052" lon="0.14726">
        <ele>610.5</ele>
        <time>2016-07-23T08:47:06Z</time>
      </trkpt>
      <trkpt lat="42.50524" lon="0.14723">
        <ele>610.6</ele>
        <time>2016-07-23T08:47:07Z</time>
      </trkpt>
      <trkpt lat="42.50528" lon="0.1472">
        <ele>610.7</ele>
        <time>2016-07-23T08:47:08Z</time>
      </trkpt>
      <trkpt lat="42.50532" lon="0.14718">
        <ele>610.8</ele>
        <time>2016-07-23T08:47:09Z</time>
      </trkpt>
      <trkpt lat="42.50536" lon="0.14715">
        <ele>610.8</ele>
        <time>2016-07-23T08:47:10Z</time>
      </trkpt>
      <trkpt lat="42.5054" lon="0.14713">
        <ele>610.9</ele>
        <time>2016-07-23T08:47:11Z</time>
      </trkpt>
      <trkpt lat="42.50544" lon="0.14711">
        <ele>610.9</ele>
        <time>2016-07-23T08:47:12Z</time>
      </trkpt>
      <trkpt lat="42.50548" lon="0.14707">
        <ele>610.8</ele>
        <time>2016-07-23T08:47:13Z</time>
      </trkpt>
      <trkpt lat="42.50553" lon="0.14704">
        <ele>610.6</ele>
        <time>2016-07-23T08:47:14Z</time>
      </trkpt>
      <trkpt lat="42.50557" lon="0.14701">
        <ele>610.4</ele>
        <time>2016-07-23T08:47:15Z</time>
      </trkpt>
      <trkpt lat="42.50561" lon="0.14697">
        <ele>610.3</ele>
        <time>2016-07-23T08:47:16Z</time>
      </trkpt>
      <trkpt lat="42.50565" lon="0.14694">
        <ele>610.1</ele>
        <time>2016-07-23T08:47:17Z</time>
      </trkpt>
      <trkpt lat="42.50568" lon="0.14691">
        <ele>610</ele>
        <time>2016-07-23T08:47:18Z</time>
      </trkpt>
      <trkpt lat="42.50572" lon="0.14688">
        <ele>609.9</ele>
        <time>2016-07-23T08:47:19Z</time>
      </trkpt>
      <trkpt lat="42.50575" lon="0.14684">
        <ele>609.8</ele>
        <time>2016-07-23T08:47:20Z</time>
      </trkpt>
      <trkpt lat="42.50578" lon="0.1468">
        <ele>609.7</ele>
        <time>2016-07-23T08:47:21Z</time>
      </trkpt>
      <trkpt lat="42.50581" lon="0.14675">
        <ele>609.6</ele>
        <time>2016-07-23T08:47:22Z</time>
      </trkpt>
      <trkpt lat="42.50582" lon="0.14668">
        <ele>609.5</ele>
        <time>2016-07-23T08:47:23Z</time>
      </trkpt>
      <trkpt lat="42.50583" lon="0.14663">
        <ele>609.5</ele>
        <time>2016-07-23T08:47:24Z</time>
      </trkpt>
      <trkpt lat="42.50585" lon="0.14658">
        <ele>609.4</ele>
        <time>2016-07-23T08:47:25Z</time>
      </trkpt>
      <trkpt lat="42.50586" lon="0.14653">
        <ele>609.4</ele>
        <time>2016-07-23T08:47:26Z</time>
      </trkpt>
      <trkpt lat="42.50586" lon="0.14649">
        <ele>609.3</ele>
        <time>2016-07-23T08:47:27Z</time>
      </trkpt>
      <trkpt lat="42.50587" lon="0.14645">
        <ele>609.3</ele>
        <time>2016-07-23T08:47:28Z</time>
      </trkpt>
      <trkpt lat="42.50587" lon="0.1464">
        <ele>609.2</ele>
        <time>2016-07-23T08:47:29Z</time>
      </trkpt>
      <trkpt lat="42.50588" lon="0.14636">
        <ele>609.2</ele>
        <time>2016-07-23T08:47:30Z</time>
      </trkpt>
      <trkpt lat="42.50588" lon="0.14632">
        <ele>609.2</ele>
        <time>2016-07-23T08:47:31Z</time>
      </trkpt>
      <trkpt lat="42.50589" lon="0.14626">
        <ele>609.1</ele>
        <time>2016-07-23T08:47:33Z</time>
      </trkpt>
      <trkpt lat="42.5059" lon="0.1462">
        <ele>609.3</ele>
        <time>2016-07-23T08:47:35Z</time>
      </trkpt>
      <trkpt lat="42.50592" lon="0.14616">
        <ele>609.5</ele>
        <time>2016-07-23T08:47:37Z</time>
      </trkpt>
      <trkpt lat="42.50596" lon="0.14619">
        <ele>609.5</ele>
        <time>2016-07-23T08:47:39Z</time>
      </trkpt>
      <trkpt lat="42.50597" lon="0.14624">
        <ele>609.4</ele>
        <time>2016-07-23T08:47:40Z</time>
      </trkpt>
      <trkpt lat="42.50597" lon="0.1463">
        <ele>609.3</ele>
        <time>2016-07-23T08:47:41Z</time>
      </trkpt>
      <trkpt lat="42.50595" lon="0.14636">
        <ele>609.3</ele>
        <time>2016-07-23T08:47:42Z</time>
      </trkpt>
      <trkpt lat="42.50595" lon="0.14642">
        <ele>609.4</ele>
        <time>2016-07-23T08:47:43Z</time>
      </trkpt>
      <trkpt lat="42.50594" lon="0.14649">
        <ele>609.4</ele>
        <time>2016-07-23T08:47:44Z</time>
      </trkpt>
      <trkpt lat="42.50594" lon="0.14655">
        <ele>609.4</ele>
        <time>2016-07-23T08:47:45Z</time>
      </trkpt>
      <trkpt lat="42.50593" lon="0.14661">
        <ele>609.5</ele>
        <time>2016-07-23T08:47:46Z</time>
      </trkpt>
      <trkpt lat="42.50593" lon="0.14666">
        <ele>609.5</ele>
        <time>2016-07-23T08:47:47Z</time>
      </trkpt>
      <trkpt lat="42.50592" lon="0.14672">
        <ele>609.5</ele>
        <time>2016-07-23T08:47:48Z</time>
      </trkpt>
      <trkpt lat="42.50592" lon="0.14677">
        <ele>609.6</ele>
        <time>2016-07-23T08:47:49Z</time>
      </trkpt>
      <trkpt lat="42.50591" lon="0.14683">
        <ele>609.6</ele>
        <time>2016-07-23T08:47:50Z</time>
      </trkpt>
      <trkpt lat="42.50591" lon="0.14688">
        <ele>609.7</ele>
        <time>2016-07-23T08:47:51Z</time>
      </trkpt>
      <trkpt lat="42.5059" lon="0.14693">
        <ele>609.7</ele>
        <time>2016-07-23T08:47:52Z</time>
      </trkpt>
      <trkpt lat="42.5059" lon="0.14699">
        <ele>609.8</ele>
        <time>2016-07-23T08:47:53Z</time>
      </trkpt>
      <trkpt lat="42.50589" lon="0.14705">
        <ele>609.8</ele>
        <time>2016-07-23T08:47:54Z</time>
      </trkpt>
      <trkpt lat="42.50588" lon="0.1471">
        <ele>609.8</ele>
        <time>2016-07-23T08:47:55Z</time>
      </trkpt>
      <trkpt lat="42.50588" lon="0.14716">
        <ele>609.7</ele>
        <time>2016-07-23T08:47:56Z</time>
      </trkpt>
      <trkpt lat="42.50587" lon="0.14722">
        <ele>609.6</ele>
        <time>2016-07-23T08:47:57Z</time>
      </trkpt>
      <trkpt lat="42.50587" lon="0.14728">
        <ele>609.5</ele>
        <time>2016-07-23T08:47:58Z</time>
      </trkpt>
      <trkpt lat="42.50586" lon="0.14733">
        <ele>609.3</ele>
        <time>2016-07-23T08:47:59Z</time>
      </trkpt>
      <trkpt lat="42.50585" lon="0.14739">
        <ele>609.2</ele>
        <time>2016-07-23T08:48:00Z</time>
      </trkpt>
      <trkpt lat="42.50585" lon="0.14745">
        <ele>609.1</ele>
        <time>2016-07-23T08:48:01Z</time>
      </trkpt>
      <trkpt lat="42.50584" lon="0.14751">
        <ele>609</ele>
        <time>2016-07-23T08:48:02Z</time>
      </trkpt>
      <trkpt lat="42.50584" lon="0.14756">
        <ele>608.8</ele>
        <time>2016-07-23T08:48:03Z</time>
      </trkpt>
      <trkpt lat="42.50583" lon="0.14762">
        <ele>608.7</ele>
        <time>2016-07-23T08:48:04Z</time>
      </trkpt>
      <trkpt lat="42.50583" lon="0.14768">
        <ele>608.6</ele>
        <time>2016-07-23T08:48:05Z</time>
      </trkpt>
      <trkpt lat="42.50583" lon="0.14774">
        <ele>608.4</ele>
        <time>2016-07-23T08:48:06Z</time>
      </trkpt>
      <trkpt lat="42.50582" lon="0.1478">
        <ele>608.3</ele>
        <time>2016-07-23T08:48:07Z</time>
      </trkpt>
      <trkpt lat="42.50582" lon="0.14786">
        <ele>608.2</ele>
        <time>2016-07-23T08:48:08Z</time>
      </trkpt>
      <trkpt lat="42.50581" lon="0.14791">
        <ele>608.1</ele>
        <time>2016-07-23T08:48:09Z</time>
      </trkpt>
      <trkpt lat="42.50581" lon="0.14797">
        <ele>608</ele>
        <time>2016-07-23T08:48:10Z</time>
      </trkpt>
      <trkpt lat="42.50581" lon="0.14803">
        <ele>608</ele>
        <time>2016-07-23T08:48:11Z</time>
      </trkpt>
      <trkpt lat="42.5058" lon="0.14809">
        <ele>607.9</ele>
        <time>2016-07-23T08:48:12Z</time>
      </trkpt>
      <trkpt lat="42.5058" lon="0.14815">
        <ele>607.9</ele>
        <time>2016-07-23T08:48:13Z</time>
      </trkpt>
      <trkpt lat="42.50579" lon="0.14821">
        <ele>607.8</ele>
        <time>2016-07-23T08:48:14Z</time>
      </trkpt>
      <trkpt lat="42.50579" lon="0.14827">
        <ele>607.8</ele>
        <time>2016-07-23T08:48:15Z</time>
      </trkpt>
      <trkpt lat="42.50578" lon="0.14833">
        <ele>607.7</ele>
        <time>2016-07-23T08:48:16Z</time>
      </trkpt>
      <trkpt lat="42.50578" lon="0.14839">
        <ele>607.7</ele>
        <time>2016-07-23T08:48:17Z</time>
      </trkpt>
      <trkpt lat="42.50577" lon="0.14845">
        <ele>607.6</ele>
        <time>2016-07-23T08:48:18Z</time>
      </trkpt>
      <trkpt lat="42.50577" lon="0.14851">
        <ele>607.5</ele>
        <time>2016-07-23T08:48:19Z</time>
      </trkpt>
      <trkpt lat="42.50576" lon="0.14856">
        <ele>607.5</ele>
        <time>2016-07-23T08:48:20Z</time>
      </trkpt>
      <trkpt lat="42.50575" lon="0.14861">
        <ele>607.4</ele>
        <time>2016-07-23T08:48:21Z</time>
      </trkpt>
      <trkpt lat="42.50574" lon="0.14865">
        <ele>607.3</ele>
        <time>2016-07-23T08:48:22Z</time>
      </trkpt>
      <trkpt lat="42.50573" lon="0.14869">
        <ele>607.2</ele>
        <time>2016-07-23T08:48:23Z</time>
      </trkpt>
      <trkpt lat="42.50572" lon="0.14873">
        <ele>607.1</ele>
        <time>2016-07-23T08:48:24Z</time>
      </trkpt>
      <trkpt lat="42.5057" lon="0.14877">
        <ele>607.2</ele>
        <time>2016-07-23T08:48:25Z</time>
      </trkpt>
      <trkpt lat="42.50569" lon="0.14881">
        <ele>607.5</ele>
        <time>2016-07-23T08:48:26Z</time>
      </trkpt>
      <trkpt lat="42.50567" lon="0.14884">
        <ele>607.7</ele>
        <time>2016-07-23T08:48:27Z</time>
      </trkpt>
      <trkpt lat="42.50566" lon="0.14888">
        <ele>607.9</ele>
        <time>2016-07-23T08:48:28Z</time>
      </trkpt>
      <trkpt lat="42.50565" lon="0.14892">
        <ele>608.1</ele>
        <time>2016-07-23T08:48:29Z</time>
      </trkpt>
      <trkpt lat="42.50563" lon="0.14895">
        <ele>608.2</ele>
        <time>2016-07-23T08:48:30Z</time>
      </trkpt>
      <trkpt lat="42.50562" lon="0.14898">
        <ele>608.4</ele>
        <time>2016-07-23T08:48:31Z</time>
      </trkpt>
      <trkpt lat="42.50561" lon="0.14902">
        <ele>608.5</ele>
        <time>2016-07-23T08:48:32Z</time>
      </trkpt>
      <trkpt lat="42.50558" lon="0.14908">
        <ele>608.7</ele>
        <time>2016-07-23T08:48:34Z</time>
      </trkpt>
      <trkpt lat="42.50556" lon="0.14914">
        <ele>608.9</ele>
        <time>2016-07-23T08:48:36Z</time>
      </trkpt>
      <trkpt lat="42.50554" lon="0.1492">
        <ele>609</ele>
        <time>2016-07-23T08:48:38Z</time>
      </trkpt>
      <trkpt lat="42.50553" lon="0.14924">
        <ele>609.1</ele>
        <time>2016-07-23T08:48:39Z</time>
      </trkpt>
      <trkpt lat="42.50552" lon="0.14927">
        <ele>609.2</ele>
        <time>2016-07-23T08:48:40Z</time>
      </trkpt>
      <trkpt lat="42.50551" lon="0.14931">
        <ele>609.3</ele>
        <time>2016-07-23T08:48:41Z</time>
      </trkpt>
      <trkpt lat="42.5055" lon="0.14938">
        <ele>609.4</ele>
        <time>2016-07-23T08:48:43Z</time>
      </trkpt>
      <trkpt lat="42.50549" lon="0.14941">
        <ele>609.5</ele>
        <time>2016-07-23T08:48:44Z</time>
      </trkpt>
      <trkpt lat="42.50548" lon="0.14945">
        <ele>609.5</ele>
        <time>2016-07-23T08:48:45Z</time>
      </trkpt>
      <trkpt lat="42.50548" lon="0.14949">
        <ele>609.6</ele>
        <time>2016-07-23T08:48:46Z</time>
      </trkpt>
      <trkpt lat="42.50547" lon="0.14953">
        <ele>609.7</ele>
        <time>2016-07-23T08:48:47Z</time>
      </trkpt>
      <trkpt lat="42.50547" lon="0.14956">
        <ele>609.8</ele>
        <time>2016-07-23T08:48:48Z</time>
      </trkpt>
      <trkpt lat="42.50547" lon="0.1496">
        <ele>610</ele>
        <time>2016-07-23T08:48:49Z</time>
      </trkpt>
      <trkpt lat="42.50546" lon="0.14964">
        <ele>610.3</ele>
        <time>2016-07-23T08:48:50Z</time>
      </trkpt>
      <trkpt lat="42.50546" lon="0.14968">
        <ele>610.6</ele>
        <time>2016-07-23T08:48:51Z</time>
      </trkpt>
      <trkpt lat="42.50546" lon="0.14972">
        <ele>610.9</ele>
        <time>2016-07-23T08:48:52Z</time>
      </trkpt>
      <trkpt lat="42.50546" lon="0.14975">
        <ele>611.1</ele>
        <time>2016-07-23T08:48:53Z</time>
      </trkpt>
      <trkpt lat="42.50545" lon="0.14979">
        <ele>611.3</ele>
        <time>2016-07-23T08:48:54Z</time>
      </trkpt>
      <trkpt lat="42.50544" lon="0.14985">
        <ele>611.7</ele>
        <time>2016-07-23T08:48:56Z</time>
      </trkpt>
      <trkpt lat="42.50543" lon="0.14992">
        <ele>612.1</ele>
        <time>2016-07-23T08:48:58Z</time>
      </trkpt>
      <trkpt lat="42.50543" lon="0.14996">
        <ele>612.3</ele>
        <time>2016-07-23T08:48:59Z</time>
      </trkpt>
      <trkpt lat="42.50542" lon="0.15">
        <ele>612.6</ele>
        <time>2016-07-23T08:49:00Z</time>
      </trkpt>
      <trkpt lat="42.50542" lon="0.15004">
        <ele>612.9</ele>
        <time>2016-07-23T08:49:01Z</time>
      </trkpt>
      <trkpt lat="42.50542" lon="0.15008">
        <ele>613.2</ele>
        <time>2016-07-23T08:49:02Z</time>
      </trkpt>
      <trkpt lat="42.50542" lon="0.15011">
        <ele>613.5</ele>
        <time>2016-07-23T08:49:03Z</time>
      </trkpt>
      <trkpt lat="42.50543" lon="0.15015">
        <ele>614</ele>
        <time>2016-07-23T08:49:04Z</time>
      </trkpt>
      <trkpt lat="42.50543" lon="0.15019">
        <ele>614.4</ele>
        <time>2016-07-23T08:49:05Z</time>
      </trkpt>
      <trkpt lat="42.50544" lon="0.15022">
        <ele>614.8</ele>
        <time>2016-07-23T08:49:06Z</time>
      </trkpt>
      <trkpt lat="42.50545" lon="0.15026">
        <ele>615.3</ele>
        <time>2016-07-23T08:49:07Z</time>
      </trkpt>
      <trkpt lat="42.50546" lon="0.15029">
        <ele>615.8</ele>
        <time>2016-07-23T08:49:08Z</time>
      </trkpt>
      <trkpt lat="42.50547" lon="0.15036">
        <ele>616.6</ele>
        <time>2016-07-23T08:49:10Z</time>
      </trkpt>
      <trkpt lat="42.50549" lon="0.15043">
        <ele>617.7</ele>
        <time>2016-07-23T08:49:12Z</time>
      </trkpt>
      <trkpt lat="42.50552" lon="0.1505">
        <ele>619.2</ele>
        <time>2016-07-23T08:49:14Z</time>
      </trkpt>
      <trkpt lat="42.50553" lon="0.15053">
        <ele>620</ele>
        <time>2016-07-23T08:49:15Z</time>
      </trkpt>
      <trkpt lat="42.50554" lon="0.15057">
        <ele>620.7</ele>
        <time>2016-07-23T08:49:16Z</time>
      </trkpt>
      <trkpt lat="42.50555" lon="0.1506">
        <ele>621.5</ele>
        <time>2016-07-23T08:49:17Z</time>
      </trkpt>
      <trkpt lat="42.50556" lon="0.15064">
        <ele>622.2</ele>
        <time>2016-07-23T08:49:18Z</time>
      </trkpt>
      <trkpt lat="42.50557" lon="0.15068">
        <ele>622.9</ele>
        <time>2016-07-23T08:49:19Z</time>
      </trkpt>
      <trkpt lat="42.50557" lon="0.15071">
        <ele>623.6</ele>
        <time>2016-07-23T08:49:20Z</time>
      </trkpt>
      <trkpt lat="42.50558" lon="0.15075">
        <ele>624.2</ele>
        <time>2016-07-23T08:49:21Z</time>
      </trkpt>
      <trkpt lat="42.50558" lon="0.15079">
        <ele>624.9</ele>
        <time>2016-07-23T08:49:22Z</time>
      </trkpt>
      <trkpt lat="42.50559" lon="0.15082">
        <ele>625.5</ele>
        <time>2016-07-23T08:49:23Z</time>
      </trkpt>
      <trkpt lat="42.5056" lon="0.15086">
        <ele>626.2</ele>
        <time>2016-07-23T08:49:24Z</time>
      </trkpt>
      <trkpt lat="42.50561" lon="0.1509">
        <ele>626.9</ele>
        <time>2016-07-23T08:49:25Z</time>
      </trkpt>
      <trkpt lat="42.50562" lon="0.15094">
        <ele>627.7</ele>
        <time>2016-07-23T08:49:26Z</time>
      </trkpt>
      <trkpt lat="42.50563" lon="0.15097">
        <ele>628.4</ele>
        <time>2016-07-23T08:49:27Z</time>
      </trkpt>
      <trkpt lat="42.50565" lon="0.151">
        <ele>629.1</ele>
        <time>2016-07-23T08:49:28Z</time>
      </trkpt>
      <trkpt lat="42.50566" lon="0.15104">
        <ele>629.8</ele>
        <time>2016-07-23T08:49:29Z</time>
      </trkpt>
      <trkpt lat="42.50568" lon="0.15107">
        <ele>630.5</ele>
        <time>2016-07-23T08:49:30Z</time>
      </trkpt>
      <trkpt lat="42.5057" lon="0.1511">
        <ele>631.2</ele>
        <time>2016-07-23T08:49:31Z</time>
      </trkpt>
      <trkpt lat="42.50572" lon="0.15113">
        <ele>631.8</ele>
        <time>2016-07-23T08:49:32Z</time>
      </trkpt>
      <trkpt lat="42.50573" lon="0.15116">
        <ele>632.5</ele>
        <time>2016-07-23T08:49:33Z</time>
      </trkpt>
      <trkpt lat="42.50575" lon="0.15118">
        <ele>633.1</ele>
        <time>2016-07-23T08:49:34Z</time>
      </trkpt>
      <trkpt lat="42.50579" lon="0.15123">
        <ele>634.2</ele>
        <time>2016-07-23T08:49:36Z</time>
      </trkpt>
      <trkpt lat="42.50582" lon="0.15128">
        <ele>635.4</ele>
        <time>2016-07-23T08:49:38Z</time>
      </trkpt>
      <trkpt lat="42.50585" lon="0.15133">
        <ele>636.6</ele>
        <time>2016-07-23T08:49:40Z</time>
      </trkpt>
      <trkpt lat="42.50589" lon="0.15139">
        <ele>637.9</ele>
        <time>2016-07-23T08:49:42Z</time>
      </trkpt>
      <trkpt lat="42.50593" lon="0.15144">
        <ele>639</ele>
        <time>2016-07-23T08:49:44Z</time>
      </trkpt>
      <trkpt lat="42.50596" lon="0.15149">
        <ele>640.1</ele>
        <time>2016-07-23T08:49:46Z</time>
      </trkpt>
      <trkpt lat="42.50599" lon="0.15155">
        <ele>641.2</ele>
        <time>2016-07-23T08:49:48Z</time>
      </trkpt>
      <trkpt lat="42.50602" lon="0.15161">
        <ele>642.2</ele>
        <time>2016-07-23T08:49:50Z</time>
      </trkpt>
      <trkpt lat="42.50606" lon="0.15166">
        <ele>643.1</ele>
        <time>2016-07-23T08:49:52Z</time>
      </trkpt>
      <trkpt lat="42.50607" lon="0.15169">
        <ele>643.6</ele>
        <time>2016-07-23T08:49:53Z</time>
      </trkpt>
      <trkpt lat="42.50611" lon="0.15174">
        <ele>644.3</ele>
        <time>2016-07-23T08:49:55Z</time>
      </trkpt>
      <trkpt lat="42.50614" lon="0.15179">
        <ele>645</ele>
        <time>2016-07-23T08:49:57Z</time>
      </trkpt>
      <trkpt lat="42.50618" lon="0.15185">
        <ele>645.7</ele>
        <time>2016-07-23T08:49:59Z</time>
      </trkpt>
      <trkpt lat="42.5062" lon="0.15191">
        <ele>646.4</ele>
        <time>2016-07-23T08:50:01Z</time>
      </trkpt>
      <trkpt lat="42.50622" lon="0.15195">
        <ele>646.7</ele>
        <time>2016-07-23T08:50:02Z</time>
      </trkpt>
      <trkpt lat="42.50623" lon="0.15198">
        <ele>647</ele>
        <time>2016-07-23T08:50:03Z</time>
      </trkpt>
      <trkpt lat="42.50625" lon="0.15201">
        <ele>647.3</ele>
        <time>2016-07-23T08:50:04Z</time>
      </trkpt>
      <trkpt lat="42.50628" lon="0.15207">
        <ele>648.6</ele>
        <time>2016-07-23T08:50:06Z</time>
      </trkpt>
      <trkpt lat="42.5063" lon="0.15213">
        <ele>650.6</ele>
        <time>2016-07-23T08:50:08Z</time>
      </trkpt>
      <trkpt lat="42.50633" lon="0.15218">
        <ele>652.8</ele>
        <time>2016-07-23T08:50:10Z</time>
      </trkpt>
      <trkpt lat="42.50636" lon="0.15224">
        <ele>654.9</ele>
        <time>2016-07-23T08:50:12Z</time>
      </trkpt>
      <trkpt lat="42.50639" lon="0.15229">
        <ele>656.7</ele>
        <time>2016-07-23T08:50:14Z</time>
      </trkpt>
      <trkpt lat="42.50642" lon="0.15234">
        <ele>658.4</ele>
        <time>2016-07-23T08:50:16Z</time>
      </trkpt>
      <trkpt lat="42.50645" lon="0.15241">
        <ele>660.2</ele>
        <time>2016-07-23T08:50:18Z</time>
      </trkpt>
      <trkpt lat="42.50647" lon="0.15247">
        <ele>661.8</ele>
        <time>2016-07-23T08:50:20Z</time>
      </trkpt>
      <trkpt lat="42.5065" lon="0.15253">
        <ele>663.3</ele>
        <time>2016-07-23T08:50:22Z</time>
      </trkpt>
      <trkpt lat="42.50652" lon="0.15259">
        <ele>664.7</ele>
        <time>2016-07-23T08:50:24Z</time>
      </trkpt>
      <trkpt lat="42.50652" lon="0.15263">
        <ele>665.4</ele>
        <time>2016-07-23T08:50:25Z</time>
      </trkpt>
      <trkpt lat="42.5065" lon="0.1527">
        <ele>666.5</ele>
        <time>2016-07-23T08:50:27Z</time>
      </trkpt>
      <trkpt lat="42.50649" lon="0.15273">
        <ele>666.9</ele>
        <time>2016-07-23T08:50:28Z</time>
      </trkpt>
      <trkpt lat="42.50646" lon="0.15276">
        <ele>667.2</ele>
        <time>2016-07-23T08:50:29Z</time>
      </trkpt>
      <trkpt lat="42.50644" lon="0.15278">
        <ele>667.4</ele>
        <time>2016-07-23T08:50:30Z</time>
      </trkpt>
      <trkpt lat="42.50641" lon="0.15279">
        <ele>667.5</ele>
        <time>2016-07-23T08:50:31Z</time>
      </trkpt>
      <trkpt lat="42.50638" lon="0.15279">
        <ele>667.3</ele>
        <time>2016-07-23T08:50:32Z</time>
      </trkpt>
      <trkpt lat="42.50635" lon="0.15278">
        <ele>666.9</ele>
        <time>2016-07-23T08:50:33Z</time>
      </trkpt>
      <trkpt lat="42.50633" lon="0.15276">
        <ele>666.4</ele>
        <time>2016-07-23T08:50:34Z</time>
      </trkpt>
      <trkpt lat="42.5063" lon="0.15274">
        <ele>665.7</ele>
        <time>2016-07-23T08:50:35Z</time>
      </trkpt>
      <trkpt lat="42.50628" lon="0.15272">
        <ele>664.9</ele>
        <time>2016-07-23T08:50:36Z</time>
      </trkpt>
      <trkpt lat="42.50626" lon="0.15269">
        <ele>664</ele>
        <time>2016-07-23T08:50:37Z</time>
      </trkpt>
      <trkpt lat="42.50623" lon="0.15266">
        <ele>663.5</ele>
        <time>2016-07-23T08:50:38Z</time>
      </trkpt>
      <trkpt lat="42.5062" lon="0.15261">
        <ele>662.6</ele>
        <time>2016-07-23T08:50:40Z</time>
      </trkpt>
      <trkpt lat="42.50616" lon="0.15257">
        <ele>661.7</ele>
        <time>2016-07-23T08:50:42Z</time>
      </trkpt>
      <trkpt lat="42.50612" lon="0.15252">
        <ele>660.8</ele>
        <time>2016-07-23T08:50:44Z</time>
      </trkpt>
      <trkpt lat="42.50608" lon="0.15247">
        <ele>660</ele>
        <time>2016-07-23T08:50:46Z</time>
      </trkpt>
      <trkpt lat="42.50604" lon="0.15244">
        <ele>659.3</ele>
        <time>2016-07-23T08:50:48Z</time>
      </trkpt>
      <trkpt lat="42.50599" lon="0.15241">
        <ele>658.8</ele>
        <time>2016-07-23T08:50:50Z</time>
      </trkpt>
      <trkpt lat="42.50597" lon="0.15239">
        <ele>658.6</ele>
        <time>2016-07-23T08:50:51Z</time>
      </trkpt>
      <trkpt lat="42.50594" lon="0.15238">
        <ele>658.3</ele>
        <time>2016-07-23T08:50:52Z</time>
      </trkpt>
      <trkpt lat="42.50592" lon="0.15236">
        <ele>658</ele>
        <time>2016-07-23T08:50:53Z</time>
      </trkpt>
      <trkpt lat="42.50587" lon="0.15233">
        <ele>657.2</ele>
        <time>2016-07-23T08:50:55Z</time>
      </trkpt>
      <trkpt lat="42.50583" lon="0.1523">
        <ele>656.7</ele>
        <time>2016-07-23T08:50:57Z</time>
      </trkpt>
      <trkpt lat="42.50578" lon="0.15229">
        <ele>656.6</ele>
        <time>2016-07-23T08:50:59Z</time>
      </trkpt>
      <trkpt lat="42.50573" lon="0.15228">
        <ele>656.6</ele>
        <time>2016-07-23T08:51:01Z</time>
      </trkpt>
      <trkpt lat="42.50568" lon="0.15228">
        <ele>656.9</ele>
        <time>2016-07-23T08:51:03Z</time>
      </trkpt>
      <trkpt lat="42.50563" lon="0.15229">
        <ele>657.6</ele>
        <time>2016-07-23T08:51:05Z</time>
      </trkpt>
      <trkpt lat="42.50558" lon="0.1523">
        <ele>658.3</ele>
        <time>2016-07-23T08:51:07Z</time>
      </trkpt>
      <trkpt lat="42.50553" lon="0.1523">
        <ele>658.7</ele>
        <time>2016-07-23T08:51:09Z</time>
      </trkpt>
      <trkpt lat="42.5055" lon="0.15229">
        <ele>658.8</ele>
        <time>2016-07-23T08:51:10Z</time>
      </trkpt>
      <trkpt lat="42.50545" lon="0.15228">
        <ele>658.4</ele>
        <time>2016-07-23T08:51:12Z</time>
      </trkpt>
      <trkpt lat="42.50541" lon="0.15224">
        <ele>657.1</ele>
        <time>2016-07-23T08:51:14Z</time>
      </trkpt>
      <trkpt lat="42.50538" lon="0.15219">
        <ele>654.5</ele>
        <time>2016-07-23T08:51:16Z</time>
      </trkpt>
      <trkpt lat="42.50536" lon="0.15213">
        <ele>651.7</ele>
        <time>2016-07-23T08:51:18Z</time>
      </trkpt>
      <trkpt lat="42.50533" lon="0.15207">
        <ele>649.3</ele>
        <time>2016-07-23T08:51:20Z</time>
      </trkpt>
      <trkpt lat="42.5053" lon="0.15202">
        <ele>647.3</ele>
        <time>2016-07-23T08:51:22Z</time>
      </trkpt>
      <trkpt lat="42.50525" lon="0.15198">
        <ele>645.6</ele>
        <time>2016-07-23T08:51:24Z</time>
      </trkpt>
      <trkpt lat="42.50523" lon="0.15197">
        <ele>644.9</ele>
        <time>2016-07-23T08:51:25Z</time>
      </trkpt>
      <trkpt lat="42.5052" lon="0.15196">
        <ele>644.2</ele>
        <time>2016-07-23T08:51:26Z</time>
      </trkpt>
      <trkpt lat="42.50517" lon="0.15196">
        <ele>643.7</ele>
        <time>2016-07-23T08:51:27Z</time>
      </trkpt>
      <trkpt lat="42.50514" lon="0.15196">
        <ele>643.3</ele>
        <time>2016-07-23T08:51:28Z</time>
      </trkpt>
      <trkpt lat="42.50511" lon="0.15196">
        <ele>642.8</ele>
        <time>2016-07-23T08:51:29Z</time>
      </trkpt>
      <trkpt lat="42.50509" lon="0.15197">
        <ele>642.6</ele>
        <time>2016-07-23T08:51:30Z</time>
      </trkpt>
      <trkpt lat="42.50506" lon="0.15198">
        <ele>642.3</ele>
        <time>2016-07-23T08:51:31Z</time>
      </trkpt>
      <trkpt lat="42.50503" lon="0.15199">
        <ele>642.2</ele>
        <time>2016-07-23T08:51:32Z</time>
      </trkpt>
      <trkpt lat="42.505" lon="0.15201">
        <ele>642.2</ele>
        <time>2016-07-23T08:51:33Z</time>
      </trkpt>
      <trkpt lat="42.50497" lon="0.15203">
        <ele>642.2</ele>
        <time>2016-07-23T08:51:34Z</time>
      </trkpt>
      <trkpt lat="42.50494" lon="0.15205">
        <ele>642.1</ele>
        <time>2016-07-23T08:51:35Z</time>
      </trkpt>
      <trkpt lat="42.50491" lon="0.15206">
        <ele>642.1</ele>
        <time>2016-07-23T08:51:36Z</time>
      </trkpt>
      <trkpt lat="42.50488" lon="0.15208">
        <ele>642</ele>
        <time>2016-07-23T08:51:37Z</time>
      </trkpt>
      <trkpt lat="42.50485" lon="0.1521">
        <ele>642.1</ele>
        <time>2016-07-23T08:51:38Z</time>
      </trkpt>
      <trkpt lat="42.50482" lon="0.15212">
        <ele>642.4</ele>
        <time>2016-07-23T08:51:39Z</time>
      </trkpt>
      <trkpt lat="42.50479" lon="0.15214">
        <ele>642.6</ele>
        <time>2016-07-23T08:51:40Z</time>
      </trkpt>
      <trkpt lat="42.50475" lon="0.15216">
        <ele>642.9</ele>
        <time>2016-07-23T08:51:41Z</time>
      </trkpt>
      <trkpt lat="42.50472" lon="0.15218">
        <ele>643.1</ele>
        <time>2016-07-23T08:51:42Z</time>
      </trkpt>
      <trkpt lat="42.50469" lon="0.1522">
        <ele>643.4</ele>
        <time>2016-07-23T08:51:43Z</time>
      </trkpt>
      <trkpt lat="42.50465" lon="0.15223">
        <ele>643.8</ele>
        <time>2016-07-23T08:51:44Z</time>
      </trkpt>
      <trkpt lat="42.50462" lon="0.15225">
        <ele>644.3</ele>
        <time>2016-07-23T08:51:45Z</time>
      </trkpt>
      <trkpt lat="42.50459" lon="0.15228">
        <ele>644.8</ele>
        <time>2016-07-23T08:51:46Z</time>
      </trkpt>
      <trkpt lat="42.50456" lon="0.15231">
        <ele>645.5</ele>
        <time>2016-07-23T08:51:47Z</time>
      </trkpt>
      <trkpt lat="42.50453" lon="0.15233">
        <ele>646.3</ele>
        <time>2016-07-23T08:51:48Z</time>
      </trkpt>
      <trkpt lat="42.5045" lon="0.15236">
        <ele>647</ele>
        <time>2016-07-23T08:51:49Z</time>
      </trkpt>
      <trkpt lat="42.50447" lon="0.15238">
        <ele>647.7</ele>
        <time>2016-07-23T08:51:50Z</time>
      </trkpt>
      <trkpt lat="42.50444" lon="0.15241">
        <ele>648.4</ele>
        <time>2016-07-23T08:51:51Z</time>
      </trkpt>
      <trkpt lat="42.50442" lon="0.15243">
        <ele>649</ele>
        <time>2016-07-23T08:51:52Z</time>
      </trkpt>
      <trkpt lat="42.50439" lon="0.15245">
        <ele>649.6</ele>
        <time>2016-07-23T08:51:53Z</time>
      </trkpt>
      <trkpt lat="42.50436" lon="0.15248">
        <ele>650.3</ele>
        <time>2016-07-23T08:51:54Z</time>
      </trkpt>
      <trkpt lat="42.50434" lon="0.1525">
        <ele>651</ele>
        <time>2016-07-23T08:51:55Z</time>
      </trkpt>
      <trkpt lat="42.50431" lon="0.15252">
        <ele>651.6</ele>
        <time>2016-07-23T08:51:56Z</time>
      </trkpt>
      <trkpt lat="42.50428" lon="0.15255">
        <ele>652.5</ele>
        <time>2016-07-23T08:51:57Z</time>
      </trkpt>
      <trkpt lat="42.50426" lon="0.15259">
        <ele>653.5</ele>
        <time>2016-07-23T08:51:58Z</time>
      </trkpt>
      <trkpt lat="42.50424" lon="0.15262">
        <ele>654.6</ele>
        <time>2016-07-23T08:51:59Z</time>
      </trkpt>
      <trkpt lat="42.50421" lon="0.15265">
        <ele>655.7</ele>
        <time>2016-07-23T08:52:00Z</time>
      </trkpt>
      <trkpt lat="42.50419" lon="0.15269">
        <ele>656.7</ele>
        <time>2016-07-23T08:52:01Z</time>
      </trkpt>
      <trkpt lat="42.50416" lon="0.15271">
        <ele>657.4</ele>
        <time>2016-07-23T08:52:02Z</time>
      </trkpt>
      <trkpt lat="42.50413" lon="0.15274">
        <ele>658.1</ele>
        <time>2016-07-23T08:52:03Z</time>
      </trkpt>
      <trkpt lat="42.5041" lon="0.15276">
        <ele>658.8</ele>
        <time>2016-07-23T08:52:04Z</time>
      </trkpt>
      <trkpt lat="42.50406" lon="0.15279">
        <ele>659.4</ele>
        <time>2016-07-23T08:52:05Z</time>
      </trkpt>
      <trkpt lat="42.50402" lon="0.15281">
        <ele>659.9</ele>
        <time>2016-07-23T08:52:06Z</time>
      </trkpt>
      <trkpt lat="42.50398" lon="0.15283">
        <ele>660.3</ele>
        <time>2016-07-23T08:52:07Z</time>
      </trkpt>
      <trkpt lat="42.50393" lon="0.15285">
        <ele>660.6</ele>
        <time>2016-07-23T08:52:08Z</time>
      </trkpt>
      <trkpt lat="42.50389" lon="0.15287">
        <ele>660.8</ele>
        <time>2016-07-23T08:52:09Z</time>
      </trkpt>
      <trkpt lat="42.50385" lon="0.15289">
        <ele>661.1</ele>
        <time>2016-07-23T08:52:10Z</time>
      </trkpt>
      <trkpt lat="42.50381" lon="0.15291">
        <ele>661.4</ele>
        <time>2016-07-23T08:52:11Z</time>
      </trkpt>
      <trkpt lat="42.50376" lon="0.15293">
        <ele>661.6</ele>
        <time>2016-07-23T08:52:12Z</time>
      </trkpt>
      <trkpt lat="42.50372" lon="0.15294">
        <ele>662.1</ele>
        <time>2016-07-23T08:52:13Z</time>
      </trkpt>
      <trkpt lat="42.50368" lon="0.15296">
        <ele>662.7</ele>
        <time>2016-07-23T08:52:14Z</time>
      </trkpt>
      <trkpt lat="42.50364" lon="0.15297">
        <ele>663.2</ele>
        <time>2016-07-23T08:52:15Z</time>
      </trkpt>
      <trkpt lat="42.5036" lon="0.15298">
        <ele>663.7</ele>
        <time>2016-07-23T08:52:16Z</time>
      </trkpt>
      <trkpt lat="42.50356" lon="0.15299">
        <ele>663.9</ele>
        <time>2016-07-23T08:52:17Z</time>
      </trkpt>
      <trkpt lat="42.50352" lon="0.15299">
        <ele>663.8</ele>
        <time>2016-07-23T08:52:18Z</time>
      </trkpt>
      <trkpt lat="42.50348" lon="0.15298">
        <ele>663.6</ele>
        <time>2016-07-23T08:52:19Z</time>
      </trkpt>
      <trkpt lat="42.50344" lon="0.15297">
        <ele>663.2</ele>
        <time>2016-07-23T08:52:20Z</time>
      </trkpt>
      <trkpt lat="42.5034" lon="0.15296">
        <ele>662.8</ele>
        <time>2016-07-23T08:52:21Z</time>
      </trkpt>
      <trkpt lat="42.50335" lon="0.15296">
        <ele>662.5</ele>
        <time>2016-07-23T08:52:22Z</time>
      </trkpt>
      <trkpt lat="42.50331" lon="0.15295">
        <ele>662.2</ele>
        <time>2016-07-23T08:52:23Z</time>
      </trkpt>
      <trkpt lat="42.50327" lon="0.15295">
        <ele>662.2</ele>
        <time>2016-07-23T08:52:24Z</time>
      </trkpt>
      <trkpt lat="42.50323" lon="0.15295">
        <ele>662.2</ele>
        <time>2016-07-23T08:52:25Z</time>
      </trkpt>
      <trkpt lat="42.50318" lon="0.15296">
        <ele>662.4</ele>
        <time>2016-07-23T08:52:26Z</time>
      </trkpt>
      <trkpt lat="42.50314" lon="0.15296">
        <ele>662.6</ele>
        <time>2016-07-23T08:52:27Z</time>
      </trkpt>
      <trkpt lat="42.5031" lon="0.15297">
        <ele>662.9</ele>
        <time>2016-07-23T08:52:28Z</time>
      </trkpt>
      <trkpt lat="42.50306" lon="0.15298">
        <ele>663.2</ele>
        <time>2016-07-23T08:52:29Z</time>
      </trkpt>
      <trkpt lat="42.50302" lon="0.15299">
        <ele>663.5</ele>
        <time>2016-07-23T08:52:30Z</time>
      </trkpt>
      <trkpt lat="42.50298" lon="0.153">
        <ele>663.8</ele>
        <time>2016-07-23T08:52:31Z</time>
      </trkpt>
      <trkpt lat="42.50294" lon="0.15301">
        <ele>664.2</ele>
        <time>2016-07-23T08:52:32Z</time>
      </trkpt>
      <trkpt lat="42.50291" lon="0.15303">
        <ele>664.5</ele>
        <time>2016-07-23T08:52:33Z</time>
      </trkpt>
      <trkpt lat="42.50287" lon="0.15304">
        <ele>664.7</ele>
        <time>2016-07-23T08:52:34Z</time>
      </trkpt>
      <trkpt lat="42.50284" lon="0.15306">
        <ele>664.8</ele>
        <time>2016-07-23T08:52:35Z</time>
      </trkpt>
      <trkpt lat="42.5028" lon="0.15308">
        <ele>665</ele>
        <time>2016-07-23T08:52:36Z</time>
      </trkpt>
      <trkpt lat="42.50276" lon="0.1531">
        <ele>665.1</ele>
        <time>2016-07-23T08:52:37Z</time>
      </trkpt>
      <trkpt lat="42.50272" lon="0.15311">
        <ele>665.2</ele>
        <time>2016-07-23T08:52:38Z</time>
      </trkpt>
      <trkpt lat="42.50269" lon="0.15313">
        <ele>665.2</ele>
        <time>2016-07-23T08:52:39Z</time>
      </trkpt>
      <trkpt lat="42.50265" lon="0.15314">
        <ele>665.2</ele>
        <time>2016-07-23T08:52:40Z</time>
      </trkpt>
      <trkpt lat="42.50261" lon="0.15315">
        <ele>665.1</ele>
        <time>2016-07-23T08:52:41Z</time>
      </trkpt>
      <trkpt lat="42.50257" lon="0.15316">
        <ele>664.9</ele>
        <time>2016-07-23T08:52:42Z</time>
      </trkpt>
      <trkpt lat="42.50254" lon="0.15317">
        <ele>664.7</ele>
        <time>2016-07-23T08:52:43Z</time>
      </trkpt>
      <trkpt lat="42.5025" lon="0.15317">
        <ele>664.4</ele>
        <time>2016-07-23T08:52:44Z</time>
      </trkpt>
      <trkpt lat="42.50247" lon="0.15317">
        <ele>664.1</ele>
        <time>2016-07-23T08:52:45Z</time>
      </trkpt>
      <trkpt lat="42.50244" lon="0.15317">
        <ele>663.7</ele>
        <time>2016-07-23T08:52:46Z</time>
      </trkpt>
      <trkpt lat="42.5024" lon="0.15317">
        <ele>663.3</ele>
        <time>2016-07-23T08:52:47Z</time>
      </trkpt>
      <trkpt lat="42.50237" lon="0.15317">
        <ele>662.9</ele>
        <time>2016-07-23T08:52:48Z</time>
      </trkpt>
      <trkpt lat="42.50233" lon="0.15318">
        <ele>662.5</ele>
        <time>2016-07-23T08:52:49Z</time>
      </trkpt>
      <trkpt lat="42.50229" lon="0.15318">
        <ele>662.1</ele>
        <time>2016-07-23T08:52:50Z</time>
      </trkpt>
      <trkpt lat="42.50226" lon="0.15318">
        <ele>661.7</ele>
        <time>2016-07-23T08:52:51Z</time>
      </trkpt>
      <trkpt lat="42.50222" lon="0.15318">
        <ele>661.2</ele>
        <time>2016-07-23T08:52:52Z</time>
      </trkpt>
      <trkpt lat="42.50218" lon="0.15318">
        <ele>660.8</ele>
        <time>2016-07-23T08:52:53Z</time>
      </trkpt>
      <trkpt lat="42.50215" lon="0.15318">
        <ele>660.5</ele>
        <time>2016-07-23T08:52:54Z</time>
      </trkpt>
      <trkpt lat="42.50212" lon="0.15318">
        <ele>660.1</ele>
        <time>2016-07-23T08:52:55Z</time>
      </trkpt>
      <trkpt lat="42.50208" lon="0.15317">
        <ele>659.6</ele>
        <time>2016-07-23T08:52:56Z</time>
      </trkpt>
      <trkpt lat="42.50205" lon="0.15316">
        <ele>659.1</ele>
        <time>2016-07-23T08:52:57Z</time>
      </trkpt>
      <trkpt lat="42.50202" lon="0.15315">
        <ele>658.7</ele>
        <time>2016-07-23T08:52:58Z</time>
      </trkpt>
      <trkpt lat="42.50199" lon="0.15314">
        <ele>658.2</ele>
        <time>2016-07-23T08:52:59Z</time>
      </trkpt>
      <trkpt lat="42.50196" lon="0.15313">
        <ele>657.8</ele>
        <time>2016-07-23T08:53:00Z</time>
      </trkpt>
      <trkpt lat="42.50193" lon="0.15312">
        <ele>657.3</ele>
        <time>2016-07-23T08:53:01Z</time>
      </trkpt>
      <trkpt lat="42.5019" lon="0.1531">
        <ele>656.7</ele>
        <time>2016-07-23T08:53:02Z</time>
      </trkpt>
      <trkpt lat="42.50187" lon="0.15308">
        <ele>656</ele>
        <time>2016-07-23T08:53:03Z</time>
      </trkpt>
      <trkpt lat="42.50184" lon="0.15305">
        <ele>655.2</ele>
        <time>2016-07-23T08:53:04Z</time>
      </trkpt>
      <trkpt lat="42.50181" lon="0.15303">
        <ele>654.4</ele>
        <time>2016-07-23T08:53:05Z</time>
      </trkpt>
      <trkpt lat="42.50179" lon="0.153">
        <ele>653.4</ele>
        <time>2016-07-23T08:53:06Z</time>
      </trkpt>
      <trkpt lat="42.50177" lon="0.15296">
        <ele>652.5</ele>
        <time>2016-07-23T08:53:07Z</time>
      </trkpt>
      <trkpt lat="42.50174" lon="0.15293">
        <ele>651.6</ele>
        <time>2016-07-23T08:53:08Z</time>
      </trkpt>
      <trkpt lat="42.50172" lon="0.15291">
        <ele>650.8</ele>
        <time>2016-07-23T08:53:09Z</time>
      </trkpt>
      <trkpt lat="42.5017" lon="0.15289">
        <ele>650.1</ele>
        <time>2016-07-23T08:53:10Z</time>
      </trkpt>
      <trkpt lat="42.50167" lon="0.15288">
        <ele>649.5</ele>
        <time>2016-07-23T08:53:11Z</time>
      </trkpt>
      <trkpt lat="42.50164" lon="0.15287">
        <ele>649.2</ele>
        <time>2016-07-23T08:53:12Z</time>
      </trkpt>
      <trkpt lat="42.50161" lon="0.15289">
        <ele>649.2</ele>
        <time>2016-07-23T08:53:13Z</time>
      </trkpt>
      <trkpt lat="42.50158" lon="0.15291">
        <ele>649.6</ele>
        <time>2016-07-23T08:53:14Z</time>
      </trkpt>
      <trkpt lat="42.50157" lon="0.15294">
        <ele>650.3</ele>
        <time>2016-07-23T08:53:15Z</time>
      </trkpt>
      <trkpt lat="42.50156" lon="0.15299">
        <ele>651.4</ele>
        <time>2016-07-23T08:53:16Z</time>
      </trkpt>
      <trkpt lat="42.50157" lon="0.15303">
        <ele>652.6</ele>
        <time>2016-07-23T08:53:17Z</time>
      </trkpt>
      <trkpt lat="42.50159" lon="0.15307">
        <ele>653.8</ele>
        <time>2016-07-23T08:53:18Z</time>
      </trkpt>
      <trkpt lat="42.50161" lon="0.1531">
        <ele>654.8</ele>
        <time>2016-07-23T08:53:19Z</time>
      </trkpt>
      <trkpt lat="42.50164" lon="0.15314">
        <ele>655.8</ele>
        <time>2016-07-23T08:53:20Z</time>
      </trkpt>
      <trkpt lat="42.50166" lon="0.15317">
        <ele>656.8</ele>
        <time>2016-07-23T08:53:21Z</time>
      </trkpt>
      <trkpt lat="42.50169" lon="0.15319">
        <ele>657.6</ele>
        <time>2016-07-23T08:53:22Z</time>
      </trkpt>
      <trkpt lat="42.50172" lon="0.15322">
        <ele>658.4</ele>
        <time>2016-07-23T08:53:23Z</time>
      </trkpt>
      <trkpt lat="42.50175" lon="0.15324">
        <ele>659.1</ele>
        <time>2016-07-23T08:53:24Z</time>
      </trkpt>
      <trkpt lat="42.50177" lon="0.15327">
        <ele>659.9</ele>
        <time>2016-07-23T08:53:25Z</time>
      </trkpt>
      <trkpt lat="42.5018" lon="0.15329">
        <ele>660.5</ele>
        <time>2016-07-23T08:53:26Z</time>
      </trkpt>
      <trkpt lat="42.50183" lon="0.1533">
        <ele>661</ele>
        <time>2016-07-23T08:53:27Z</time>
      </trkpt>
      <trkpt lat="42.50188" lon="0.15334">
        <ele>662.1</ele>
        <time>2016-07-23T08:53:29Z</time>
      </trkpt>
      <trkpt lat="42.5019" lon="0.15335">
        <ele>662.6</ele>
        <time>2016-07-23T08:53:30Z</time>
      </trkpt>
      <trkpt lat="42.50193" lon="0.15337">
        <ele>663.1</ele>
        <time>2016-07-23T08:53:31Z</time>
      </trkpt>
      <trkpt lat="42.50195" lon="0.15339">
        <ele>663.6</ele>
        <time>2016-07-23T08:53:32Z</time>
      </trkpt>
      <trkpt lat="42.50198" lon="0.1534">
        <ele>664.1</ele>
        <time>2016-07-23T08:53:33Z</time>
      </trkpt>
      <trkpt lat="42.50201" lon="0.15342">
        <ele>664.5</ele>
        <time>2016-07-23T08:53:34Z</time>
      </trkpt>
      <trkpt lat="42.50203" lon="0.15343">
        <ele>664.9</ele>
        <time>2016-07-23T08:53:35Z</time>
      </trkpt>
      <trkpt lat="42.50206" lon="0.15345">
        <ele>665.4</ele>
        <time>2016-07-23T08:53:36Z</time>
      </trkpt>
      <trkpt lat="42.50208" lon="0.15347">
        <ele>666</ele>
        <time>2016-07-23T08:53:37Z</time>
      </trkpt>
      <trkpt lat="42.50211" lon="0.15349">
        <ele>666.8</ele>
        <time>2016-07-23T08:53:38Z</time>
      </trkpt>
      <trkpt lat="42.50214" lon="0.15351">
        <ele>667.6</ele>
        <time>2016-07-23T08:53:39Z</time>
      </trkpt>
      <trkpt lat="42.50216" lon="0.15352">
        <ele>668.3</ele>
        <time>2016-07-23T08:53:40Z</time>
      </trkpt>
      <trkpt lat="42.50219" lon="0.15353">
        <ele>669</ele>
        <time>2016-07-23T08:53:41Z</time>
      </trkpt>
      <trkpt lat="42.50222" lon="0.15354">
        <ele>669.6</ele>
        <time>2016-07-23T08:53:42Z</time>
      </trkpt>
      <trkpt lat="42.50225" lon="0.15354">
        <ele>670.2</ele>
        <time>2016-07-23T08:53:43Z</time>
      </trkpt>
      <trkpt lat="42.50228" lon="0.15355">
        <ele>670.8</ele>
        <time>2016-07-23T08:53:44Z</time>
      </trkpt>
      <trkpt lat="42.50231" lon="0.15355">
        <ele>671.5</ele>
        <time>2016-07-23T08:53:45Z</time>
      </trkpt>
      <trkpt lat="42.50234" lon="0.15356">
        <ele>672</ele>
        <time>2016-07-23T08:53:46Z</time>
      </trkpt>
      <trkpt lat="42.50236" lon="0.15356">
        <ele>672.6</ele>
        <time>2016-07-23T08:53:47Z</time>
      </trkpt>
      <trkpt lat="42.50242" lon="0.15357">
        <ele>673.8</ele>
        <time>2016-07-23T08:53:49Z</time>
      </trkpt>
      <trkpt lat="42.50247" lon="0.15359">
        <ele>675</ele>
        <time>2016-07-23T08:53:51Z</time>
      </trkpt>
      <trkpt lat="42.50249" lon="0.1536">
        <ele>675.7</ele>
        <time>2016-07-23T08:53:52Z</time>
      </trkpt>
      <trkpt lat="42.50252" lon="0.15361">
        <ele>676.4</ele>
        <time>2016-07-23T08:53:53Z</time>
      </trkpt>
      <trkpt lat="42.50257" lon="0.15363">
        <ele>677.9</ele>
        <time>2016-07-23T08:53:55Z</time>
      </trkpt>
      <trkpt lat="42.50261" lon="0.15366">
        <ele>679.5</ele>
        <time>2016-07-23T08:53:57Z</time>
      </trkpt>
      <trkpt lat="42.50265" lon="0.15368">
        <ele>681</ele>
        <time>2016-07-23T08:53:59Z</time>
      </trkpt>
      <trkpt lat="42.5027" lon="0.1537">
        <ele>682.3</ele>
        <time>2016-07-23T08:54:01Z</time>
      </trkpt>
      <trkpt lat="42.50274" lon="0.15371">
        <ele>683.6</ele>
        <time>2016-07-23T08:54:03Z</time>
      </trkpt>
      <trkpt lat="42.50279" lon="0.15372">
        <ele>684.6</ele>
        <time>2016-07-23T08:54:05Z</time>
      </trkpt>
      <trkpt lat="42.50284" lon="0.15371">
        <ele>685.2</ele>
        <time>2016-07-23T08:54:07Z</time>
      </trkpt>
      <trkpt lat="42.50288" lon="0.1537">
        <ele>685.8</ele>
        <time>2016-07-23T08:54:09Z</time>
      </trkpt>
      <trkpt lat="42.50293" lon="0.1537">
        <ele>686.6</ele>
        <time>2016-07-23T08:54:11Z</time>
      </trkpt>
      <trkpt lat="42.50297" lon="0.1537">
        <ele>687</ele>
        <time>2016-07-23T08:54:13Z</time>
      </trkpt>
      <trkpt lat="42.50302" lon="0.1537">
        <ele>687.1</ele>
        <time>2016-07-23T08:54:15Z</time>
      </trkpt>
      <trkpt lat="42.50307" lon="0.15369">
        <ele>687.5</ele>
        <time>2016-07-23T08:54:17Z</time>
      </trkpt>
      <trkpt lat="42.50311" lon="0.15371">
        <ele>688.3</ele>
        <time>2016-07-23T08:54:19Z</time>
      </trkpt>
      <trkpt lat="42.50315" lon="0.15373">
        <ele>689.4</ele>
        <time>2016-07-23T08:54:21Z</time>
      </trkpt>
      <trkpt lat="42.50317" lon="0.15376">
        <ele>690.6</ele>
        <time>2016-07-23T08:54:23Z</time>
      </trkpt>
      <trkpt lat="42.50318" lon="0.15381">
        <ele>691.5</ele>
        <time>2016-07-23T08:54:25Z</time>
      </trkpt>
      <trkpt lat="42.50316" lon="0.15387">
        <ele>692.5</ele>
        <time>2016-07-23T08:54:27Z</time>
      </trkpt>
      <trkpt lat="42.50313" lon="0.15392">
        <ele>693.1</ele>
        <time>2016-07-23T08:54:29Z</time>
      </trkpt>
      <trkpt lat="42.50311" lon="0.15398">
        <ele>693.9</ele>
        <time>2016-07-23T08:54:31Z</time>
      </trkpt>
      <trkpt lat="42.50309" lon="0.15403">
        <ele>694.6</ele>
        <time>2016-07-23T08:54:33Z</time>
      </trkpt>
      <trkpt lat="42.50307" lon="0.15408">
        <ele>695.2</ele>
        <time>2016-07-23T08:54:35Z</time>
      </trkpt>
      <trkpt lat="42.50304" lon="0.15412">
        <ele>695.6</ele>
        <time>2016-07-23T08:54:37Z</time>
      </trkpt>
      <trkpt lat="42.503" lon="0.15415">
        <ele>695.7</ele>
        <time>2016-07-23T08:54:39Z</time>
      </trkpt>
      <trkpt lat="42.50297" lon="0.15419">
        <ele>696.1</ele>
        <time>2016-07-23T08:54:41Z</time>
      </trkpt>
      <trkpt lat="42.50297" lon="0.15425">
        <ele>697</ele>
        <time>2016-07-23T08:54:43Z</time>
      </trkpt>
      <trkpt lat="42.50298" lon="0.15431">
        <ele>698.2</ele>
        <time>2016-07-23T08:54:45Z</time>
      </trkpt>
      <trkpt lat="42.503" lon="0.15436">
        <ele>699.4</ele>
        <time>2016-07-23T08:54:47Z</time>
      </trkpt>
      <trkpt lat="42.50303" lon="0.15441">
        <ele>700.6</ele>
        <time>2016-07-23T08:54:49Z</time>
      </trkpt>
      <trkpt lat="42.50305" lon="0.15448">
        <ele>702</ele>
        <time>2016-07-23T08:54:51Z</time>
      </trkpt>
      <trkpt lat="42.50306" lon="0.15451">
        <ele>702.8</ele>
        <time>2016-07-23T08:54:52Z</time>
      </trkpt>
      <trkpt lat="42.5031" lon="0.15456">
        <ele>704.2</ele>
        <time>2016-07-23T08:54:54Z</time>
      </trkpt>
      <trkpt lat="42.50312" lon="0.15461">
        <ele>705</ele>
        <time>2016-07-23T08:54:56Z</time>
      </trkpt>
      <trkpt lat="42.50314" lon="0.15466">
        <ele>705.7</ele>
        <time>2016-07-23T08:54:58Z</time>
      </trkpt>
      <trkpt lat="42.50317" lon="0.15472">
        <ele>706.3</ele>
        <time>2016-07-23T08:55:00Z</time>
      </trkpt>
      <trkpt lat="42.5032" lon="0.15477">
        <ele>707</ele>
        <time>2016-07-23T08:55:02Z</time>
      </trkpt>
      <trkpt lat="42.50324" lon="0.15482">
        <ele>707.8</ele>
        <time>2016-07-23T08:55:04Z</time>
      </trkpt>
      <trkpt lat="42.50328" lon="0.15486">
        <ele>708.5</ele>
        <time>2016-07-23T08:55:06Z</time>
      </trkpt>
      <trkpt lat="42.50333" lon="0.15488">
        <ele>709.2</ele>
        <time>2016-07-23T08:55:08Z</time>
      </trkpt>
      <trkpt lat="42.50336" lon="0.15489">
        <ele>709.6</ele>
        <time>2016-07-23T08:55:09Z</time>
      </trkpt>
      <trkpt lat="42.50338" lon="0.1549">
        <ele>710</ele>
        <time>2016-07-23T08:55:10Z</time>
      </trkpt>
      <trkpt lat="42.50341" lon="0.15492">
        <ele>710.4</ele>
        <time>2016-07-23T08:55:11Z</time>
      </trkpt>
      <trkpt lat="42.50344" lon="0.15493">
        <ele>710.8</ele>
        <time>2016-07-23T08:55:12Z</time>
      </trkpt>
      <trkpt lat="42.50349" lon="0.15494">
        <ele>711.5</ele>
        <time>2016-07-23T08:55:14Z</time>
      </trkpt>
      <trkpt lat="42.50354" lon="0.15496">
        <ele>712.2</ele>
        <time>2016-07-23T08:55:16Z</time>
      </trkpt>
      <trkpt lat="42.50359" lon="0.15497">
        <ele>712.9</ele>
        <time>2016-07-23T08:55:18Z</time>
      </trkpt>
      <trkpt lat="42.50364" lon="0.15499">
        <ele>713.5</ele>
        <time>2016-07-23T08:55:20Z</time>
      </trkpt>
      <trkpt lat="42.50368" lon="0.15502">
        <ele>714.2</ele>
        <time>2016-07-23T08:55:22Z</time>
      </trkpt>
      <trkpt lat="42.50371" lon="0.15504">
        <ele>714.6</ele>
        <time>2016-07-23T08:55:23Z</time>
      </trkpt>
      <trkpt lat="42.50374" lon="0.15505">
        <ele>714.9</ele>
        <time>2016-07-23T08:55:24Z</time>
      </trkpt>
      <trkpt lat="42.50378" lon="0.15508">
        <ele>715.3</ele>
        <time>2016-07-23T08:55:26Z</time>
      </trkpt>
      <trkpt lat="42.50381" lon="0.1551">
        <ele>715.4</ele>
        <time>2016-07-23T08:55:27Z</time>
      </trkpt>
      <trkpt lat="42.50384" lon="0.15512">
        <ele>715.5</ele>
        <time>2016-07-23T08:55:28Z</time>
      </trkpt>
      <trkpt lat="42.50386" lon="0.15514">
        <ele>715.6</ele>
        <time>2016-07-23T08:55:29Z</time>
      </trkpt>
      <trkpt lat="42.50389" lon="0.15516">
        <ele>715.8</ele>
        <time>2016-07-23T08:55:30Z</time>
      </trkpt>
      <trkpt lat="42.50391" lon="0.15518">
        <ele>715.9</ele>
        <time>2016-07-23T08:55:31Z</time>
      </trkpt>
      <trkpt lat="42.50394" lon="0.1552">
        <ele>716</ele>
        <time>2016-07-23T08:55:32Z</time>
      </trkpt>
      <trkpt lat="42.50397" lon="0.15522">
        <ele>716.2</ele>
        <time>2016-07-23T08:55:33Z</time>
      </trkpt>
      <trkpt lat="42.50399" lon="0.15523">
        <ele>716.3</ele>
        <time>2016-07-23T08:55:34Z</time>
      </trkpt>
      <trkpt lat="42.50404" lon="0.15526">
        <ele>716.6</ele>
        <time>2016-07-23T08:55:36Z</time>
      </trkpt>
      <trkpt lat="42.50407" lon="0.15528">
        <ele>716.7</ele>
        <time>2016-07-23T08:55:37Z</time>
      </trkpt>
      <trkpt lat="42.50409" lon="0.1553">
        <ele>716.8</ele>
        <time>2016-07-23T08:55:38Z</time>
      </trkpt>
      <trkpt lat="42.50414" lon="0.15532">
        <ele>717.1</ele>
        <time>2016-07-23T08:55:40Z</time>
      </trkpt>
      <trkpt lat="42.5042" lon="0.15533">
        <ele>717.3</ele>
        <time>2016-07-23T08:55:42Z</time>
      </trkpt>
      <trkpt lat="42.50422" lon="0.15533">
        <ele>717.4</ele>
        <time>2016-07-23T08:55:43Z</time>
      </trkpt>
      <trkpt lat="42.50425" lon="0.15534">
        <ele>717.5</ele>
        <time>2016-07-23T08:55:44Z</time>
      </trkpt>
      <trkpt lat="42.5043" lon="0.15537">
        <ele>717.8</ele>
        <time>2016-07-23T08:55:46Z</time>
      </trkpt>
      <trkpt lat="42.50432" lon="0.15539">
        <ele>718</ele>
        <time>2016-07-23T08:55:47Z</time>
      </trkpt>
      <trkpt lat="42.50434" lon="0.15542">
        <ele>718.1</ele>
        <time>2016-07-23T08:55:48Z</time>
      </trkpt>
      <trkpt lat="42.50436" lon="0.15545">
        <ele>718.4</ele>
        <time>2016-07-23T08:55:49Z</time>
      </trkpt>
      <trkpt lat="42.50438" lon="0.15548">
        <ele>718.6</ele>
        <time>2016-07-23T08:55:50Z</time>
      </trkpt>
      <trkpt lat="42.50439" lon="0.15551">
        <ele>718.8</ele>
        <time>2016-07-23T08:55:51Z</time>
      </trkpt>
      <trkpt lat="42.50441" lon="0.15554">
        <ele>719</ele>
        <time>2016-07-23T08:55:52Z</time>
      </trkpt>
      <trkpt lat="42.50443" lon="0.15556">
        <ele>719.3</ele>
        <time>2016-07-23T08:55:53Z</time>
      </trkpt>
      <trkpt lat="42.50446" lon="0.15559">
        <ele>719.5</ele>
        <time>2016-07-23T08:55:54Z</time>
      </trkpt>
      <trkpt lat="42.50448" lon="0.15561">
        <ele>719.7</ele>
        <time>2016-07-23T08:55:55Z</time>
      </trkpt>
      <trkpt lat="42.5045" lon="0.15564">
        <ele>719.9</ele>
        <time>2016-07-23T08:55:56Z</time>
      </trkpt>
      <trkpt lat="42.50452" lon="0.15566">
        <ele>720.2</ele>
        <time>2016-07-23T08:55:57Z</time>
      </trkpt>
      <trkpt lat="42.50456" lon="0.15571">
        <ele>720.6</ele>
        <time>2016-07-23T08:55:59Z</time>
      </trkpt>
      <trkpt lat="42.50458" lon="0.15574">
        <ele>720.9</ele>
        <time>2016-07-23T08:56:00Z</time>
      </trkpt>
      <trkpt lat="42.5046" lon="0.15576">
        <ele>721.1</ele>
        <time>2016-07-23T08:56:01Z</time>
      </trkpt>
      <trkpt lat="42.50462" lon="0.15579">
        <ele>721.4</ele>
        <time>2016-07-23T08:56:02Z</time>
      </trkpt>
      <trkpt lat="42.50465" lon="0.15584">
        <ele>721.9</ele>
        <time>2016-07-23T08:56:04Z</time>
      </trkpt>
      <trkpt lat="42.50466" lon="0.15587">
        <ele>722.2</ele>
        <time>2016-07-23T08:56:05Z</time>
      </trkpt>
      <trkpt lat="42.5047" lon="0.15593">
        <ele>722.8</ele>
        <time>2016-07-23T08:56:07Z</time>
      </trkpt>
      <trkpt lat="42.50472" lon="0.15599">
        <ele>723.3</ele>
        <time>2016-07-23T08:56:09Z</time>
      </trkpt>
      <trkpt lat="42.50473" lon="0.15603">
        <ele>723.5</ele>
        <time>2016-07-23T08:56:10Z</time>
      </trkpt>
      <trkpt lat="42.50474" lon="0.15606">
        <ele>723.8</ele>
        <time>2016-07-23T08:56:11Z</time>
      </trkpt>
      <trkpt lat="42.50474" lon="0.1561">
        <ele>724</ele>
        <time>2016-07-23T08:56:12Z</time>
      </trkpt>
      <trkpt lat="42.50474" lon="0.15614">
        <ele>724.3</ele>
        <time>2016-07-23T08:56:13Z</time>
      </trkpt>
      <trkpt lat="42.50475" lon="0.15618">
        <ele>724.5</ele>
        <time>2016-07-23T08:56:14Z</time>
      </trkpt>
      <trkpt lat="42.50476" lon="0.15624">
        <ele>725</ele>
        <time>2016-07-23T08:56:16Z</time>
      </trkpt>
      <trkpt lat="42.50477" lon="0.15628">
        <ele>725.2</ele>
        <time>2016-07-23T08:56:17Z</time>
      </trkpt>
      <trkpt lat="42.50478" lon="0.15631">
        <ele>725.3</ele>
        <time>2016-07-23T08:56:18Z</time>
      </trkpt>
      <trkpt lat="42.5048" lon="0.15634">
        <ele>725.4</ele>
        <time>2016-07-23T08:56:19Z</time>
      </trkpt>
      <trkpt lat="42.50481" lon="0.15637">
        <ele>725.6</ele>
        <time>2016-07-23T08:56:20Z</time>
      </trkpt>
      <trkpt lat="42.50483" lon="0.15641">
        <ele>725.7</ele>
        <time>2016-07-23T08:56:21Z</time>
      </trkpt>
      <trkpt lat="42.50484" lon="0.15644">
        <ele>725.8</ele>
        <time>2016-07-23T08:56:22Z</time>
      </trkpt>
      <trkpt lat="42.50486" lon="0.15647">
        <ele>725.9</ele>
        <time>2016-07-23T08:56:23Z</time>
      </trkpt>
      <trkpt lat="42.50487" lon="0.1565">
        <ele>726</ele>
        <time>2016-07-23T08:56:24Z</time>
      </trkpt>
      <trkpt lat="42.50489" lon="0.15653">
        <ele>726.1</ele>
        <time>2016-07-23T08:56:25Z</time>
      </trkpt>
      <trkpt lat="42.5049" lon="0.15656">
        <ele>726.2</ele>
        <time>2016-07-23T08:56:26Z</time>
      </trkpt>
      <trkpt lat="42.50492" lon="0.15659">
        <ele>726.3</ele>
        <time>2016-07-23T08:56:27Z</time>
      </trkpt>
      <trkpt lat="42.50493" lon="0.15663">
        <ele>726.4</ele>
        <time>2016-07-23T08:56:28Z</time>
      </trkpt>
      <trkpt lat="42.50495" lon="0.15666">
        <ele>726.5</ele>
        <time>2016-07-23T08:56:29Z</time>
      </trkpt>
      <trkpt lat="42.50496" lon="0.15669">
        <ele>726.6</ele>
        <time>2016-07-23T08:56:30Z</time>
      </trkpt>
      <trkpt lat="42.50498" lon="0.15673">
        <ele>726.7</ele>
        <time>2016-07-23T08:56:31Z</time>
      </trkpt>
      <trkpt lat="42.50499" lon="0.15676">
        <ele>726.8</ele>
        <time>2016-07-23T08:56:32Z</time>
      </trkpt>
      <trkpt lat="42.50502" lon="0.15682">
        <ele>726.9</ele>
        <time>2016-07-23T08:56:34Z</time>
      </trkpt>
      <trkpt lat="42.50504" lon="0.15689">
        <ele>727</ele>
        <time>2016-07-23T08:56:36Z</time>
      </trkpt>
      <trkpt lat="42.50504" lon="0.15693">
        <ele>727</ele>
        <time>2016-07-23T08:56:37Z</time>
      </trkpt>
      <trkpt lat="42.50505" lon="0.15697">
        <ele>727.1</ele>
        <time>2016-07-23T08:56:38Z</time>
      </trkpt>
      <trkpt lat="42.50506" lon="0.157">
        <ele>727.1</ele>
        <time>2016-07-23T08:56:39Z</time>
      </trkpt>
      <trkpt lat="42.50506" lon="0.15704">
        <ele>727.1</ele>
        <time>2016-07-23T08:56:40Z</time>
      </trkpt>
      <trkpt lat="42.50508" lon="0.15711">
        <ele>727.3</ele>
        <time>2016-07-23T08:56:42Z</time>
      </trkpt>
      <trkpt lat="42.50509" lon="0.15715">
        <ele>727.6</ele>
        <time>2016-07-23T08:56:43Z</time>
      </trkpt>
      <trkpt lat="42.50511" lon="0.15718">
        <ele>727.8</ele>
        <time>2016-07-23T08:56:44Z</time>
      </trkpt>
      <trkpt lat="42.50513" lon="0.15721">
        <ele>728</ele>
        <time>2016-07-23T08:56:45Z</time>
      </trkpt>
      <trkpt lat="42.50515" lon="0.15724">
        <ele>728.2</ele>
        <time>2016-07-23T08:56:46Z</time>
      </trkpt>
      <trkpt lat="42.50516" lon="0.15727">
        <ele>728.4</ele>
        <time>2016-07-23T08:56:47Z</time>
      </trkpt>
      <trkpt lat="42.50518" lon="0.15729">
        <ele>728.6</ele>
        <time>2016-07-23T08:56:48Z</time>
      </trkpt>
      <trkpt lat="42.5052" lon="0.15732">
        <ele>728.8</ele>
        <time>2016-07-23T08:56:49Z</time>
      </trkpt>
      <trkpt lat="42.50522" lon="0.15735">
        <ele>729.1</ele>
        <time>2016-07-23T08:56:50Z</time>
      </trkpt>
      <trkpt lat="42.50524" lon="0.15738">
        <ele>729.3</ele>
        <time>2016-07-23T08:56:51Z</time>
      </trkpt>
      <trkpt lat="42.50528" lon="0.15743">
        <ele>729.7</ele>
        <time>2016-07-23T08:56:53Z</time>
      </trkpt>
      <trkpt lat="42.50529" lon="0.15746">
        <ele>729.9</ele>
        <time>2016-07-23T08:56:54Z</time>
      </trkpt>
      <trkpt lat="42.50531" lon="0.15749">
        <ele>730.1</ele>
        <time>2016-07-23T08:56:55Z</time>
      </trkpt>
      <trkpt lat="42.50533" lon="0.15752">
        <ele>730.3</ele>
        <time>2016-07-23T08:56:56Z</time>
      </trkpt>
      <trkpt lat="42.50537" lon="0.15757">
        <ele>730.8</ele>
        <time>2016-07-23T08:56:58Z</time>
      </trkpt>
      <trkpt lat="42.50538" lon="0.1576">
        <ele>731</ele>
        <time>2016-07-23T08:56:59Z</time>
      </trkpt>
      <trkpt lat="42.5054" lon="0.15763">
        <ele>731.2</ele>
        <time>2016-07-23T08:57:00Z</time>
      </trkpt>
      <trkpt lat="42.50542" lon="0.15766">
        <ele>731.5</ele>
        <time>2016-07-23T08:57:01Z</time>
      </trkpt>
      <trkpt lat="42.50544" lon="0.15768">
        <ele>731.7</ele>
        <time>2016-07-23T08:57:02Z</time>
      </trkpt>
      <trkpt lat="42.50546" lon="0.15771">
        <ele>732</ele>
        <time>2016-07-23T08:57:03Z</time>
      </trkpt>
      <trkpt lat="42.50549" lon="0.15777">
        <ele>732.6</ele>
        <time>2016-07-23T08:57:05Z</time>
      </trkpt>
      <trkpt lat="42.50551" lon="0.15783">
        <ele>733.2</ele>
        <time>2016-07-23T08:57:07Z</time>
      </trkpt>
      <trkpt lat="42.50554" lon="0.15789">
        <ele>733.7</ele>
        <time>2016-07-23T08:57:09Z</time>
      </trkpt>
      <trkpt lat="42.50555" lon="0.15793">
        <ele>734</ele>
        <time>2016-07-23T08:57:10Z</time>
      </trkpt>
      <trkpt lat="42.50558" lon="0.15799">
        <ele>734.5</ele>
        <time>2016-07-23T08:57:12Z</time>
      </trkpt>
      <trkpt lat="42.5056" lon="0.15806">
        <ele>735</ele>
        <time>2016-07-23T08:57:14Z</time>
      </trkpt>
      <trkpt lat="42.50561" lon="0.15809">
        <ele>735.2</ele>
        <time>2016-07-23T08:57:15Z</time>
      </trkpt>
      <trkpt lat="42.50561" lon="0.15813">
        <ele>735.4</ele>
        <time>2016-07-23T08:57:16Z</time>
      </trkpt>
      <trkpt lat="42.50562" lon="0.15816">
        <ele>735.6</ele>
        <time>2016-07-23T08:57:17Z</time>
      </trkpt>
      <trkpt lat="42.50563" lon="0.1582">
        <ele>735.9</ele>
        <time>2016-07-23T08:57:18Z</time>
      </trkpt>
      <trkpt lat="42.50564" lon="0.15826">
        <ele>736.2</ele>
        <time>2016-07-23T08:57:20Z</time>
      </trkpt>
      <trkpt lat="42.50565" lon="0.15833">
        <ele>736.6</ele>
        <time>2016-07-23T08:57:22Z</time>
      </trkpt>
      <trkpt lat="42.50566" lon="0.1584">
        <ele>737</ele>
        <time>2016-07-23T08:57:24Z</time>
      </trkpt>
      <trkpt lat="42.50568" lon="0.15846">
        <ele>737.3</ele>
        <time>2016-07-23T08:57:26Z</time>
      </trkpt>
      <trkpt lat="42.50568" lon="0.1585">
        <ele>737.5</ele>
        <time>2016-07-23T08:57:27Z</time>
      </trkpt>
      <trkpt lat="42.50569" lon="0.15854">
        <ele>737.7</ele>
        <time>2016-07-23T08:57:28Z</time>
      </trkpt>
      <trkpt lat="42.5057" lon="0.15858">
        <ele>737.9</ele>
        <time>2016-07-23T08:57:29Z</time>
      </trkpt>
      <trkpt lat="42.5057" lon="0.15862">
        <ele>738.1</ele>
        <time>2016-07-23T08:57:30Z</time>
      </trkpt>
      <trkpt lat="42.50571" lon="0.15866">
        <ele>738.3</ele>
        <time>2016-07-23T08:57:31Z</time>
      </trkpt>
      <trkpt lat="42.50571" lon="0.1587">
        <ele>738.5</ele>
        <time>2016-07-23T08:57:32Z</time>
      </trkpt>
      <trkpt lat="42.50571" lon="0.15874">
        <ele>738.6</ele>
        <time>2016-07-23T08:57:33Z</time>
      </trkpt>
      <trkpt lat="42.50572" lon="0.15877">
        <ele>738.9</ele>
        <time>2016-07-23T08:57:34Z</time>
      </trkpt>
      <trkpt lat="42.50572" lon="0.15881">
        <ele>739.1</ele>
        <time>2016-07-23T08:57:35Z</time>
      </trkpt>
      <trkpt lat="42.50573" lon="0.15885">
        <ele>739.3</ele>
        <time>2016-07-23T08:57:36Z</time>
      </trkpt>
      <trkpt lat="42.50573" lon="0.15888">
        <ele>739.6</ele>
        <time>2016-07-23T08:57:37Z</time>
      </trkpt>
      <trkpt lat="42.50574" lon="0.15895">
        <ele>740</ele>
        <time>2016-07-23T08:57:39Z</time>
      </trkpt>
      <trkpt lat="42.50575" lon="0.15902">
        <ele>740.4</ele>
        <time>2016-07-23T08:57:41Z</time>
      </trkpt>
      <trkpt lat="42.50575" lon="0.1591">
        <ele>740.9</ele>
        <time>2016-07-23T08:57:43Z</time>
      </trkpt>
      <trkpt lat="42.50576" lon="0.15913">
        <ele>741.1</ele>
        <time>2016-07-23T08:57:44Z</time>
      </trkpt>
      <trkpt lat="42.50577" lon="0.1592">
        <ele>741.6</ele>
        <time>2016-07-23T08:57:46Z</time>
      </trkpt>
      <trkpt lat="42.50577" lon="0.15924">
        <ele>741.8</ele>
        <time>2016-07-23T08:57:47Z</time>
      </trkpt>
      <trkpt lat="42.50578" lon="0.15931">
        <ele>742.2</ele>
        <time>2016-07-23T08:57:49Z</time>
      </trkpt>
      <trkpt lat="42.50579" lon="0.15935">
        <ele>742.5</ele>
        <time>2016-07-23T08:57:50Z</time>
      </trkpt>
      <trkpt lat="42.5058" lon="0.15941">
        <ele>742.9</ele>
        <time>2016-07-23T08:57:52Z</time>
      </trkpt>
      <trkpt lat="42.50581" lon="0.15948">
        <ele>743.3</ele>
        <time>2016-07-23T08:57:54Z</time>
      </trkpt>
      <trkpt lat="42.50581" lon="0.15956">
        <ele>743.8</ele>
        <time>2016-07-23T08:57:56Z</time>
      </trkpt>
      <trkpt lat="42.50583" lon="0.15963">
        <ele>744.3</ele>
        <time>2016-07-23T08:57:58Z</time>
      </trkpt>
      <trkpt lat="42.50584" lon="0.1597">
        <ele>744.9</ele>
        <time>2016-07-23T08:58:00Z</time>
      </trkpt>
      <trkpt lat="42.50585" lon="0.15976">
        <ele>745.5</ele>
        <time>2016-07-23T08:58:02Z</time>
      </trkpt>
      <trkpt lat="42.50586" lon="0.15983">
        <ele>746.1</ele>
        <time>2016-07-23T08:58:04Z</time>
      </trkpt>
      <trkpt lat="42.50589" lon="0.15989">
        <ele>746.6</ele>
        <time>2016-07-23T08:58:06Z</time>
      </trkpt>
      <trkpt lat="42.50591" lon="0.15991">
        <ele>746.9</ele>
        <time>2016-07-23T08:58:07Z</time>
      </trkpt>
      <trkpt lat="42.50594" lon="0.15993">
        <ele>747.1</ele>
        <time>2016-07-23T08:58:08Z</time>
      </trkpt>
      <trkpt lat="42.50597" lon="0.15994">
        <ele>747.2</ele>
        <time>2016-07-23T08:58:09Z</time>
      </trkpt>
      <trkpt lat="42.50601" lon="0.15994">
        <ele>747.3</ele>
        <time>2016-07-23T08:58:10Z</time>
      </trkpt>
      <trkpt lat="42.50605" lon="0.15994">
        <ele>747.3</ele>
        <time>2016-07-23T08:58:11Z</time>
      </trkpt>
      <trkpt lat="42.50609" lon="0.15994">
        <ele>747.4</ele>
        <time>2016-07-23T08:58:12Z</time>
      </trkpt>
      <trkpt lat="42.50613" lon="0.15994">
        <ele>747.4</ele>
        <time>2016-07-23T08:58:13Z</time>
      </trkpt>
      <trkpt lat="42.50617" lon="0.15994">
        <ele>747.5</ele>
        <time>2016-07-23T08:58:14Z</time>
      </trkpt>
      <trkpt lat="42.50621" lon="0.15994">
        <ele>747.5</ele>
        <time>2016-07-23T08:58:15Z</time>
      </trkpt>
      <trkpt lat="42.50625" lon="0.15993">
        <ele>747.5</ele>
        <time>2016-07-23T08:58:16Z</time>
      </trkpt>
      <trkpt lat="42.50629" lon="0.15993">
        <ele>747.6</ele>
        <time>2016-07-23T08:58:17Z</time>
      </trkpt>
      <trkpt lat="42.50633" lon="0.15993">
        <ele>747.6</ele>
        <time>2016-07-23T08:58:18Z</time>
      </trkpt>
      <trkpt lat="42.50637" lon="0.15993">
        <ele>747.6</ele>
        <time>2016-07-23T08:58:19Z</time>
      </trkpt>
      <trkpt lat="42.50642" lon="0.15993">
        <ele>747.7</ele>
        <time>2016-07-23T08:58:20Z</time>
      </trkpt>
      <trkpt lat="42.50646" lon="0.15993">
        <ele>747.8</ele>
        <time>2016-07-23T08:58:21Z</time>
      </trkpt>
      <trkpt lat="42.5065" lon="0.15994">
        <ele>747.9</ele>
        <time>2016-07-23T08:58:22Z</time>
      </trkpt>
      <trkpt lat="42.50654" lon="0.15994">
        <ele>747.9</ele>
        <time>2016-07-23T08:58:23Z</time>
      </trkpt>
      <trkpt lat="42.50659" lon="0.15994">
        <ele>748</ele>
        <time>2016-07-23T08:58:24Z</time>
      </trkpt>
      <trkpt lat="42.50663" lon="0.15995">
        <ele>748.1</ele>
        <time>2016-07-23T08:58:25Z</time>
      </trkpt>
      <trkpt lat="42.50667" lon="0.15995">
        <ele>748.1</ele>
        <time>2016-07-23T08:58:26Z</time>
      </trkpt>
      <trkpt lat="42.50671" lon="0.15996">
        <ele>748.2</ele>
        <time>2016-07-23T08:58:27Z</time>
      </trkpt>
      <trkpt lat="42.50675" lon="0.15996">
        <ele>748.3</ele>
        <time>2016-07-23T08:58:28Z</time>
      </trkpt>
      <trkpt lat="42.5068" lon="0.15997">
        <ele>748.4</ele>
        <time>2016-07-23T08:58:29Z</time>
      </trkpt>
      <trkpt lat="42.50685" lon="0.15997">
        <ele>748.5</ele>
        <time>2016-07-23T08:58:30Z</time>
      </trkpt>
      <trkpt lat="42.50691" lon="0.15996">
        <ele>748.5</ele>
        <time>2016-07-23T08:58:31Z</time>
      </trkpt>
      <trkpt lat="42.50695" lon="0.15997">
        <ele>748.6</ele>
        <time>2016-07-23T08:58:32Z</time>
      </trkpt>
      <trkpt lat="42.507" lon="0.15997">
        <ele>748.7</ele>
        <time>2016-07-23T08:58:33Z</time>
      </trkpt>
      <trkpt lat="42.50704" lon="0.15997">
        <ele>748.7</ele>
        <time>2016-07-23T08:58:34Z</time>
      </trkpt>
      <trkpt lat="42.50708" lon="0.15997">
        <ele>748.8</ele>
        <time>2016-07-23T08:58:35Z</time>
      </trkpt>
      <trkpt lat="42.50713" lon="0.15997">
        <ele>748.9</ele>
        <time>2016-07-23T08:58:36Z</time>
      </trkpt>
      <trkpt lat="42.50717" lon="0.15997">
        <ele>749.1</ele>
        <time>2016-07-23T08:58:37Z</time>
      </trkpt>
      <trkpt lat="42.50722" lon="0.15998">
        <ele>749.3</ele>
        <time>2016-07-23T08:58:38Z</time>
      </trkpt>
      <trkpt lat="42.50726" lon="0.15998">
        <ele>749.5</ele>
        <time>2016-07-23T08:58:39Z</time>
      </trkpt>
      <trkpt lat="42.5073" lon="0.15999">
        <ele>749.7</ele>
        <time>2016-07-23T08:58:40Z</time>
      </trkpt>
      <trkpt lat="42.50734" lon="0.15999">
        <ele>749.9</ele>
        <time>2016-07-23T08:58:41Z</time>
      </trkpt>
      <trkpt lat="42.50739" lon="0.16">
        <ele>750.1</ele>
        <time>2016-07-23T08:58:42Z</time>
      </trkpt>
      <trkpt lat="42.50743" lon="0.16001">
        <ele>750.3</ele>
        <time>2016-07-23T08:58:43Z</time>
      </trkpt>
      <trkpt lat="42.50748" lon="0.16">
        <ele>750.5</ele>
        <time>2016-07-23T08:58:44Z</time>
      </trkpt>
      <trkpt lat="42.50753" lon="0.16001">
        <ele>750.7</ele>
        <time>2016-07-23T08:58:45Z</time>
      </trkpt>
      <trkpt lat="42.50757" lon="0.16002">
        <ele>750.9</ele>
        <time>2016-07-23T08:58:46Z</time>
      </trkpt>
      <trkpt lat="42.50761" lon="0.16003">
        <ele>751.1</ele>
        <time>2016-07-23T08:58:47Z</time>
      </trkpt>
      <trkpt lat="42.50766" lon="0.16005">
        <ele>751.4</ele>
        <time>2016-07-23T08:58:48Z</time>
      </trkpt>
      <trkpt lat="42.5077" lon="0.16005">
        <ele>751.6</ele>
        <time>2016-07-23T08:58:49Z</time>
      </trkpt>
      <trkpt lat="42.50775" lon="0.16006">
        <ele>751.8</ele>
        <time>2016-07-23T08:58:50Z</time>
      </trkpt>
      <trkpt lat="42.50779" lon="0.16007">
        <ele>752.1</ele>
        <time>2016-07-23T08:58:51Z</time>
      </trkpt>
      <trkpt lat="42.50783" lon="0.16008">
        <ele>752.3</ele>
        <time>2016-07-23T08:58:52Z</time>
      </trkpt>
      <trkpt lat="42.50788" lon="0.16009">
        <ele>752.5</ele>
        <time>2016-07-23T08:58:53Z</time>
      </trkpt>
      <trkpt lat="42.50792" lon="0.1601">
        <ele>752.7</ele>
        <time>2016-07-23T08:58:54Z</time>
      </trkpt>
      <trkpt lat="42.50796" lon="0.16011">
        <ele>752.7</ele>
        <time>2016-07-23T08:58:55Z</time>
      </trkpt>
      <trkpt lat="42.50801" lon="0.16011">
        <ele>752.7</ele>
        <time>2016-07-23T08:58:56Z</time>
      </trkpt>
      <trkpt lat="42.50805" lon="0.16012">
        <ele>752.7</ele>
        <time>2016-07-23T08:58:57Z</time>
      </trkpt>
      <trkpt lat="42.5081" lon="0.16013">
        <ele>752.7</ele>
        <time>2016-07-23T08:58:58Z</time>
      </trkpt>
      <trkpt lat="42.50814" lon="0.16015">
        <ele>752.8</ele>
        <time>2016-07-23T08:58:59Z</time>
      </trkpt>
      <trkpt lat="42.50819" lon="0.16017">
        <ele>752.9</ele>
        <time>2016-07-23T08:59:00Z</time>
      </trkpt>
      <trkpt lat="42.50823" lon="0.16019">
        <ele>753</ele>
        <time>2016-07-23T08:59:01Z</time>
      </trkpt>
      <trkpt lat="42.50827" lon="0.16022">
        <ele>753.2</ele>
        <time>2016-07-23T08:59:02Z</time>
      </trkpt>
      <trkpt lat="42.50831" lon="0.16025">
        <ele>753.4</ele>
        <time>2016-07-23T08:59:03Z</time>
      </trkpt>
      <trkpt lat="42.50834" lon="0.16029">
        <ele>753.6</ele>
        <time>2016-07-23T08:59:04Z</time>
      </trkpt>
      <trkpt lat="42.50838" lon="0.16033">
        <ele>753.8</ele>
        <time>2016-07-23T08:59:05Z</time>
      </trkpt>
      <trkpt lat="42.50841" lon="0.16036">
        <ele>754</ele>
        <time>2016-07-23T08:59:06Z</time>
      </trkpt>
      <trkpt lat="42.50845" lon="0.1604">
        <ele>754.2</ele>
        <time>2016-07-23T08:59:07Z</time>
      </trkpt>
      <trkpt lat="42.50848" lon="0.16043">
        <ele>754.4</ele>
        <time>2016-07-23T08:59:08Z</time>
      </trkpt>
      <trkpt lat="42.50851" lon="0.16046">
        <ele>754.4</ele>
        <time>2016-07-23T08:59:09Z</time>
      </trkpt>
      <trkpt lat="42.50854" lon="0.1605">
        <ele>754.4</ele>
        <time>2016-07-23T08:59:10Z</time>
      </trkpt>
      <trkpt lat="42.50857" lon="0.16053">
        <ele>754.4</ele>
        <time>2016-07-23T08:59:11Z</time>
      </trkpt>
      <trkpt lat="42.5086" lon="0.16055">
        <ele>754.4</ele>
        <time>2016-07-23T08:59:12Z</time>
      </trkpt>
      <trkpt lat="42.50863" lon="0.16058">
        <ele>754.4</ele>
        <time>2016-07-23T08:59:13Z</time>
      </trkpt>
      <trkpt lat="42.50866" lon="0.16061">
        <ele>754.4</ele>
        <time>2016-07-23T08:59:14Z</time>
      </trkpt>
      <trkpt lat="42.50869" lon="0.16064">
        <ele>754.4</ele>
        <time>2016-07-23T08:59:15Z</time>
      </trkpt>
      <trkpt lat="42.50872" lon="0.16067">
        <ele>754.4</ele>
        <time>2016-07-23T08:59:16Z</time>
      </trkpt>
      <trkpt lat="42.50875" lon="0.1607">
        <ele>754.3</ele>
        <time>2016-07-23T08:59:17Z</time>
      </trkpt>
      <trkpt lat="42.50878" lon="0.16073">
        <ele>754.3</ele>
        <time>2016-07-23T08:59:18Z</time>
      </trkpt>
      <trkpt lat="42.50881" lon="0.16076">
        <ele>754.2</ele>
        <time>2016-07-23T08:59:19Z</time>
      </trkpt>
      <trkpt lat="42.50884" lon="0.16079">
        <ele>754.2</ele>
        <time>2016-07-23T08:59:20Z</time>
      </trkpt>
      <trkpt lat="42.50887" lon="0.16082">
        <ele>754.1</ele>
        <time>2016-07-23T08:59:21Z</time>
      </trkpt>
      <trkpt lat="42.5089" lon="0.16085">
        <ele>754.1</ele>
        <time>2016-07-23T08:59:22Z</time>
      </trkpt>
      <trkpt lat="42.50893" lon="0.16087">
        <ele>754</ele>
        <time>2016-07-23T08:59:23Z</time>
      </trkpt>
      <trkpt lat="42.50896" lon="0.1609">
        <ele>754</ele>
        <time>2016-07-23T08:59:24Z</time>
      </trkpt>
      <trkpt lat="42.50899" lon="0.16093">
        <ele>753.9</ele>
        <time>2016-07-23T08:59:25Z</time>
      </trkpt>
      <trkpt lat="42.50902" lon="0.16095">
        <ele>753.9</ele>
        <time>2016-07-23T08:59:26Z</time>
      </trkpt>
      <trkpt lat="42.50905" lon="0.16098">
        <ele>753.8</ele>
        <time>2016-07-23T08:59:27Z</time>
      </trkpt>
      <trkpt lat="42.50909" lon="0.16101">
        <ele>753.8</ele>
        <time>2016-07-23T08:59:28Z</time>
      </trkpt>
      <trkpt lat="42.50912" lon="0.16105">
        <ele>753.8</ele>
        <time>2016-07-23T08:59:29Z</time>
      </trkpt>
      <trkpt lat="42.50915" lon="0.16108">
        <ele>753.7</ele>
        <time>2016-07-23T08:59:30Z</time>
      </trkpt>
      <trkpt lat="42.50918" lon="0.16111">
        <ele>753.7</ele>
        <time>2016-07-23T08:59:31Z</time>
      </trkpt>
      <trkpt lat="42.50922" lon="0.16113">
        <ele>753.7</ele>
        <time>2016-07-23T08:59:32Z</time>
      </trkpt>
      <trkpt lat="42.50926" lon="0.16115">
        <ele>753.6</ele>
        <time>2016-07-23T08:59:33Z</time>
      </trkpt>
      <trkpt lat="42.50932" lon="0.16112">
        <ele>753.4</ele>
        <time>2016-07-23T08:59:34Z</time>
      </trkpt>
      <trkpt lat="42.50936" lon="0.16113">
        <ele>753.3</ele>
        <time>2016-07-23T08:59:35Z</time>
      </trkpt>
      <trkpt lat="42.50941" lon="0.16113">
        <ele>753.2</ele>
        <time>2016-07-23T08:59:36Z</time>
      </trkpt>
      <trkpt lat="42.50946" lon="0.16113">
        <ele>753</ele>
        <time>2016-07-23T08:59:37Z</time>
      </trkpt>
      <trkpt lat="42.50951" lon="0.16113">
        <ele>752.9</ele>
        <time>2016-07-23T08:59:38Z</time>
      </trkpt>
      <trkpt lat="42.50956" lon="0.16112">
        <ele>752.8</ele>
        <time>2016-07-23T08:59:39Z</time>
      </trkpt>
      <trkpt lat="42.50961" lon="0.16112">
        <ele>752.6</ele>
        <time>2016-07-23T08:59:40Z</time>
      </trkpt>
      <trkpt lat="42.50967" lon="0.16111">
        <ele>752.3</ele>
        <time>2016-07-23T08:59:41Z</time>
      </trkpt>
      <trkpt lat="42.50971" lon="0.16113">
        <ele>752.2</ele>
        <time>2016-07-23T08:59:42Z</time>
      </trkpt>
      <trkpt lat="42.50976" lon="0.16116">
        <ele>752.1</ele>
        <time>2016-07-23T08:59:43Z</time>
      </trkpt>
      <trkpt lat="42.50979" lon="0.16119">
        <ele>752.1</ele>
        <time>2016-07-23T08:59:44Z</time>
      </trkpt>
      <trkpt lat="42.50983" lon="0.16123">
        <ele>752.1</ele>
        <time>2016-07-23T08:59:45Z</time>
      </trkpt>
      <trkpt lat="42.50987" lon="0.16128">
        <ele>752.2</ele>
        <time>2016-07-23T08:59:46Z</time>
      </trkpt>
      <trkpt lat="42.5099" lon="0.16132">
        <ele>752.3</ele>
        <time>2016-07-23T08:59:47Z</time>
      </trkpt>
      <trkpt lat="42.50994" lon="0.16136">
        <ele>752.5</ele>
        <time>2016-07-23T08:59:48Z</time>
      </trkpt>
      <trkpt lat="42.50998" lon="0.16141">
        <ele>752.7</ele>
        <time>2016-07-23T08:59:49Z</time>
      </trkpt>
      <trkpt lat="42.51002" lon="0.16146">
        <ele>753</ele>
        <time>2016-07-23T08:59:50Z</time>
      </trkpt>
      <trkpt lat="42.51005" lon="0.16152">
        <ele>753.3</ele>
        <time>2016-07-23T08:59:51Z</time>
      </trkpt>
      <trkpt lat="42.51009" lon="0.16157">
        <ele>753.6</ele>
        <time>2016-07-23T08:59:52Z</time>
      </trkpt>
      <trkpt lat="42.51012" lon="0.16162">
        <ele>753.8</ele>
        <time>2016-07-23T08:59:53Z</time>
      </trkpt>
      <trkpt lat="42.51016" lon="0.16167">
        <ele>754.1</ele>
        <time>2016-07-23T08:59:54Z</time>
      </trkpt>
      <trkpt lat="42.51019" lon="0.16171">
        <ele>754.4</ele>
        <time>2016-07-23T08:59:55Z</time>
      </trkpt>
      <trkpt lat="42.51023" lon="0.16176">
        <ele>754.6</ele>
        <time>2016-07-23T08:59:56Z</time>
      </trkpt>
      <trkpt lat="42.51027" lon="0.16179">
        <ele>754.8</ele>
        <time>2016-07-23T08:59:57Z</time>
      </trkpt>
      <trkpt lat="42.5103" lon="0.16183">
        <ele>755.1</ele>
        <time>2016-07-23T08:59:58Z</time>
      </trkpt>
      <trkpt lat="42.51033" lon="0.16187">
        <ele>755.3</ele>
        <time>2016-07-23T08:59:59Z</time>
      </trkpt>
      <trkpt lat="42.51036" lon="0.16191">
        <ele>755.6</ele>
        <time>2016-07-23T09:00:00Z</time>
      </trkpt>
      <trkpt lat="42.51039" lon="0.16195">
        <ele>755.9</ele>
        <time>2016-07-23T09:00:01Z</time>
      </trkpt>
      <trkpt lat="42.51042" lon="0.162">
        <ele>756.3</ele>
        <time>2016-07-23T09:00:02Z</time>
      </trkpt>
      <trkpt lat="42.51045" lon="0.16205">
        <ele>756.3</ele>
        <time>2016-07-23T09:00:03Z</time>
      </trkpt>
      <trkpt lat="42.51046" lon="0.16212">
        <ele>756.4</ele>
        <time>2016-07-23T09:00:04Z</time>
      </trkpt>
      <trkpt lat="42.51045" lon="0.16219">
        <ele>756.7</ele>
        <time>2016-07-23T09:00:05Z</time>
      </trkpt>
      <trkpt lat="42.51044" lon="0.16226">
        <ele>757</ele>
        <time>2016-07-23T09:00:06Z</time>
      </trkpt>
      <trkpt lat="42.51043" lon="0.16233">
        <ele>757.3</ele>
        <time>2016-07-23T09:00:07Z</time>
      </trkpt>
      <trkpt lat="42.51042" lon="0.16241">
        <ele>757.7</ele>
        <time>2016-07-23T09:00:08Z</time>
      </trkpt>
      <trkpt lat="42.51042" lon="0.16249">
        <ele>757.9</ele>
        <time>2016-07-23T09:00:09Z</time>
      </trkpt>
      <trkpt lat="42.51042" lon="0.16258">
        <ele>758.1</ele>
        <time>2016-07-23T09:00:10Z</time>
      </trkpt>
      <trkpt lat="42.51043" lon="0.16267">
        <ele>758.2</ele>
        <time>2016-07-23T09:00:11Z</time>
      </trkpt>
      <trkpt lat="42.51044" lon="0.16277">
        <ele>758.2</ele>
        <time>2016-07-23T09:00:12Z</time>
      </trkpt>
      <trkpt lat="42.51045" lon="0.16287">
        <ele>758.3</ele>
        <time>2016-07-23T09:00:13Z</time>
      </trkpt>
      <trkpt lat="42.51046" lon="0.16298">
        <ele>758.4</ele>
        <time>2016-07-23T09:00:14Z</time>
      </trkpt>
      <trkpt lat="42.51046" lon="0.16308">
        <ele>758.7</ele>
        <time>2016-07-23T09:00:15Z</time>
      </trkpt>
      <trkpt lat="42.51047" lon="0.16319">
        <ele>759</ele>
        <time>2016-07-23T09:00:16Z</time>
      </trkpt>
      <trkpt lat="42.51047" lon="0.16328">
        <ele>759.3</ele>
        <time>2016-07-23T09:00:17Z</time>
      </trkpt>
      <trkpt lat="42.51049" lon="0.16338">
        <ele>759.5</ele>
        <time>2016-07-23T09:00:18Z</time>
      </trkpt>
      <trkpt lat="42.51049" lon="0.16349">
        <ele>759.8</ele>
        <time>2016-07-23T09:00:19Z</time>
      </trkpt>
      <trkpt lat="42.5105" lon="0.16357">
        <ele>760</ele>
        <time>2016-07-23T09:00:20Z</time>
      </trkpt>
      <trkpt lat="42.51052" lon="0.16365">
        <ele>759.9</ele>
        <time>2016-07-23T09:00:21Z</time>
      </trkpt>
      <trkpt lat="42.51055" lon="0.16372">
        <ele>759.8</ele>
        <time>2016-07-23T09:00:22Z</time>
      </trkpt>
      <trkpt lat="42.51059" lon="0.16379">
        <ele>759.4</ele>
        <time>2016-07-23T09:00:23Z</time>
      </trkpt>
      <trkpt lat="42.51063" lon="0.16386">
        <ele>759.1</ele>
        <time>2016-07-23T09:00:24Z</time>
      </trkpt>
      <trkpt lat="42.51067" lon="0.16393">
        <ele>758.9</ele>
        <time>2016-07-23T09:00:25Z</time>
      </trkpt>
      <trkpt lat="42.51071" lon="0.164">
        <ele>758.6</ele>
        <time>2016-07-23T09:00:26Z</time>
      </trkpt>
      <trkpt lat="42.51075" lon="0.16406">
        <ele>758.3</ele>
        <time>2016-07-23T09:00:27Z</time>
      </trkpt>
      <trkpt lat="42.5108" lon="0.1641">
        <ele>757.7</ele>
        <time>2016-07-23T09:00:28Z</time>
      </trkpt>
      <trkpt lat="42.51087" lon="0.1641">
        <ele>756.7</ele>
        <time>2016-07-23T09:00:29Z</time>
      </trkpt>
      <trkpt lat="42.51093" lon="0.16407">
        <ele>755.5</ele>
        <time>2016-07-23T09:00:30Z</time>
      </trkpt>
      <trkpt lat="42.51099" lon="0.16401">
        <ele>754.4</ele>
        <time>2016-07-23T09:00:31Z</time>
      </trkpt>
      <trkpt lat="42.51105" lon="0.16395">
        <ele>753.3</ele>
        <time>2016-07-23T09:00:32Z</time>
      </trkpt>
      <trkpt lat="42.5111" lon="0.16388">
        <ele>752.1</ele>
        <time>2016-07-23T09:00:33Z</time>
      </trkpt>
      <trkpt lat="42.51115" lon="0.16381">
        <ele>750.9</ele>
        <time>2016-07-23T09:00:34Z</time>
      </trkpt>
      <trkpt lat="42.5112" lon="0.16375">
        <ele>749.8</ele>
        <time>2016-07-23T09:00:35Z</time>
      </trkpt>
      <trkpt lat="42.51125" lon="0.16368">
        <ele>748.5</ele>
        <time>2016-07-23T09:00:36Z</time>
      </trkpt>
      <trkpt lat="42.51129" lon="0.16361">
        <ele>747.8</ele>
        <time>2016-07-23T09:00:37Z</time>
      </trkpt>
      <trkpt lat="42.51133" lon="0.16353">
        <ele>747.1</ele>
        <time>2016-07-23T09:00:38Z</time>
      </trkpt>
      <trkpt lat="42.51137" lon="0.16347">
        <ele>746.5</ele>
        <time>2016-07-23T09:00:39Z</time>
      </trkpt>
      <trkpt lat="42.51142" lon="0.16342">
        <ele>745.9</ele>
        <time>2016-07-23T09:00:40Z</time>
      </trkpt>
      <trkpt lat="42.51147" lon="0.16336">
        <ele>745.2</ele>
        <time>2016-07-23T09:00:41Z</time>
      </trkpt>
      <trkpt lat="42.51151" lon="0.16331">
        <ele>744.6</ele>
        <time>2016-07-23T09:00:42Z</time>
      </trkpt>
      <trkpt lat="42.51156" lon="0.16326">
        <ele>743.9</ele>
        <time>2016-07-23T09:00:43Z</time>
      </trkpt>
      <trkpt lat="42.51161" lon="0.16322">
        <ele>743.3</ele>
        <time>2016-07-23T09:00:44Z</time>
      </trkpt>
      <trkpt lat="42.51166" lon="0.16319">
        <ele>742.6</ele>
        <time>2016-07-23T09:00:45Z</time>
      </trkpt>
      <trkpt lat="42.51171" lon="0.16316">
        <ele>742.1</ele>
        <time>2016-07-23T09:00:46Z</time>
      </trkpt>
      <trkpt lat="42.51176" lon="0.16313">
        <ele>741.5</ele>
        <time>2016-07-23T09:00:47Z</time>
      </trkpt>
      <trkpt lat="42.51181" lon="0.1631">
        <ele>740.9</ele>
        <time>2016-07-23T09:00:48Z</time>
      </trkpt>
      <trkpt lat="42.51185" lon="0.16307">
        <ele>740.4</ele>
        <time>2016-07-23T09:00:49Z</time>
      </trkpt>
      <trkpt lat="42.51189" lon="0.16305">
        <ele>739.9</ele>
        <time>2016-07-23T09:00:50Z</time>
      </trkpt>
      <trkpt lat="42.51193" lon="0.16303">
        <ele>739.3</ele>
        <time>2016-07-23T09:00:51Z</time>
      </trkpt>
      <trkpt lat="42.51196" lon="0.163">
        <ele>738.8</ele>
        <time>2016-07-23T09:00:52Z</time>
      </trkpt>
      <trkpt lat="42.512" lon="0.16299">
        <ele>738.4</ele>
        <time>2016-07-23T09:00:53Z</time>
      </trkpt>
      <trkpt lat="42.51204" lon="0.16298">
        <ele>738</ele>
        <time>2016-07-23T09:00:54Z</time>
      </trkpt>
      <trkpt lat="42.51207" lon="0.16297">
        <ele>737.7</ele>
        <time>2016-07-23T09:00:55Z</time>
      </trkpt>
      <trkpt lat="42.5121" lon="0.16296">
        <ele>737.7</ele>
        <time>2016-07-23T09:00:56Z</time>
      </trkpt>
      <trkpt lat="42.51213" lon="0.16294">
        <ele>737.7</ele>
        <time>2016-07-23T09:00:57Z</time>
      </trkpt>
      <trkpt lat="42.51218" lon="0.16291">
        <ele>737.8</ele>
        <time>2016-07-23T09:00:59Z</time>
      </trkpt>
      <trkpt lat="42.51222" lon="0.16289">
        <ele>738</ele>
        <time>2016-07-23T09:01:00Z</time>
      </trkpt>
      <trkpt lat="42.51227" lon="0.16287">
        <ele>738.3</ele>
        <time>2016-07-23T09:01:02Z</time>
      </trkpt>
      <trkpt lat="42.5123" lon="0.16287">
        <ele>738.5</ele>
        <time>2016-07-23T09:01:03Z</time>
      </trkpt>
      <trkpt lat="42.51233" lon="0.16287">
        <ele>738.9</ele>
        <time>2016-07-23T09:01:04Z</time>
      </trkpt>
      <trkpt lat="42.51237" lon="0.16289">
        <ele>739.4</ele>
        <time>2016-07-23T09:01:05Z</time>
      </trkpt>
      <trkpt lat="42.5124" lon="0.16291">
        <ele>740</ele>
        <time>2016-07-23T09:01:06Z</time>
      </trkpt>
      <trkpt lat="42.51244" lon="0.16294">
        <ele>740.7</ele>
        <time>2016-07-23T09:01:07Z</time>
      </trkpt>
      <trkpt lat="42.51247" lon="0.16297">
        <ele>741.4</ele>
        <time>2016-07-23T09:01:08Z</time>
      </trkpt>
      <trkpt lat="42.51251" lon="0.16301">
        <ele>742.1</ele>
        <time>2016-07-23T09:01:09Z</time>
      </trkpt>
      <trkpt lat="42.51255" lon="0.16304">
        <ele>742.8</ele>
        <time>2016-07-23T09:01:10Z</time>
      </trkpt>
      <trkpt lat="42.51258" lon="0.16307">
        <ele>743.5</ele>
        <time>2016-07-23T09:01:11Z</time>
      </trkpt>
      <trkpt lat="42.51262" lon="0.16311">
        <ele>744.2</ele>
        <time>2016-07-23T09:01:12Z</time>
      </trkpt>
      <trkpt lat="42.51266" lon="0.16314">
        <ele>745</ele>
        <time>2016-07-23T09:01:13Z</time>
      </trkpt>
      <trkpt lat="42.51269" lon="0.16317">
        <ele>745.6</ele>
        <time>2016-07-23T09:01:14Z</time>
      </trkpt>
      <trkpt lat="42.51273" lon="0.1632">
        <ele>746.4</ele>
        <time>2016-07-23T09:01:15Z</time>
      </trkpt>
      <trkpt lat="42.51276" lon="0.16324">
        <ele>747</ele>
        <time>2016-07-23T09:01:16Z</time>
      </trkpt>
      <trkpt lat="42.5128" lon="0.16327">
        <ele>747.7</ele>
        <time>2016-07-23T09:01:17Z</time>
      </trkpt>
      <trkpt lat="42.51284" lon="0.1633">
        <ele>748.4</ele>
        <time>2016-07-23T09:01:18Z</time>
      </trkpt>
      <trkpt lat="42.51287" lon="0.16333">
        <ele>749.1</ele>
        <time>2016-07-23T09:01:19Z</time>
      </trkpt>
      <trkpt lat="42.5129" lon="0.16338">
        <ele>749.9</ele>
        <time>2016-07-23T09:01:20Z</time>
      </trkpt>
      <trkpt lat="42.51292" lon="0.16344">
        <ele>750.4</ele>
        <time>2016-07-23T09:01:21Z</time>
      </trkpt>
      <trkpt lat="42.51295" lon="0.1635">
        <ele>750.4</ele>
        <time>2016-07-23T09:01:22Z</time>
      </trkpt>
      <trkpt lat="42.51297" lon="0.16356">
        <ele>750.7</ele>
        <time>2016-07-23T09:01:23Z</time>
      </trkpt>
      <trkpt lat="42.51297" lon="0.16362">
        <ele>751.2</ele>
        <time>2016-07-23T09:01:24Z</time>
      </trkpt>
      <trkpt lat="42.51297" lon="0.16368">
        <ele>751.8</ele>
        <time>2016-07-23T09:01:25Z</time>
      </trkpt>
      <trkpt lat="42.51297" lon="0.16374">
        <ele>752.4</ele>
        <time>2016-07-23T09:01:26Z</time>
      </trkpt>
      <trkpt lat="42.51297" lon="0.1638">
        <ele>753</ele>
        <time>2016-07-23T09:01:27Z</time>
      </trkpt>
      <trkpt lat="42.51297" lon="0.16387">
        <ele>753.5</ele>
        <time>2016-07-23T09:01:28Z</time>
      </trkpt>
      <trkpt lat="42.51296" lon="0.16394">
        <ele>754.2</ele>
        <time>2016-07-23T09:01:29Z</time>
      </trkpt>
      <trkpt lat="42.51296" lon="0.16403">
        <ele>754.8</ele>
        <time>2016-07-23T09:01:30Z</time>
      </trkpt>
      <trkpt lat="42.51296" lon="0.16411">
        <ele>755.5</ele>
        <time>2016-07-23T09:01:31Z</time>
      </trkpt>
      <trkpt lat="42.51295" lon="0.16419">
        <ele>756.2</ele>
        <time>2016-07-23T09:01:32Z</time>
      </trkpt>
      <trkpt lat="42.51294" lon="0.16427">
        <ele>757</ele>
        <time>2016-07-23T09:01:33Z</time>
      </trkpt>
      <trkpt lat="42.51294" lon="0.16436">
        <ele>757.7</ele>
        <time>2016-07-23T09:01:34Z</time>
      </trkpt>
      <trkpt lat="42.51293" lon="0.16444">
        <ele>758.7</ele>
        <time>2016-07-23T09:01:35Z</time>
      </trkpt>
      <trkpt lat="42.51292" lon="0.16454">
        <ele>759.6</ele>
        <time>2016-07-23T09:01:36Z</time>
      </trkpt>
      <trkpt lat="42.51289" lon="0.16463">
        <ele>759.7</ele>
        <time>2016-07-23T09:01:37Z</time>
      </trkpt>
      <trkpt lat="42.51288" lon="0.16473">
        <ele>759.2</ele>
        <time>2016-07-23T09:01:38Z</time>
      </trkpt>
      <trkpt lat="42.51284" lon="0.16482">
        <ele>758.9</ele>
        <time>2016-07-23T09:01:39Z</time>
      </trkpt>
      <trkpt lat="42.5128" lon="0.16491">
        <ele>758.7</ele>
        <time>2016-07-23T09:01:40Z</time>
      </trkpt>
      <trkpt lat="42.51275" lon="0.165">
        <ele>758.8</ele>
        <time>2016-07-23T09:01:41Z</time>
      </trkpt>
      <trkpt lat="42.5127" lon="0.1651">
        <ele>759</ele>
        <time>2016-07-23T09:01:42Z</time>
      </trkpt>
      <trkpt lat="42.51267" lon="0.16521">
        <ele>759.3</ele>
        <time>2016-07-23T09:01:43Z</time>
      </trkpt>
      <trkpt lat="42.51267" lon="0.16532">
        <ele>759.3</ele>
        <time>2016-07-23T09:01:44Z</time>
      </trkpt>
      <trkpt lat="42.51267" lon="0.16542">
        <ele>759.1</ele>
        <time>2016-07-23T09:01:45Z</time>
      </trkpt>
      <trkpt lat="42.51269" lon="0.16552">
        <ele>758.4</ele>
        <time>2016-07-23T09:01:46Z</time>
      </trkpt>
      <trkpt lat="42.51273" lon="0.1656">
        <ele>757.6</ele>
        <time>2016-07-23T09:01:47Z</time>
      </trkpt>
      <trkpt lat="42.51276" lon="0.16568">
        <ele>757</ele>
        <time>2016-07-23T09:01:48Z</time>
      </trkpt>
      <trkpt lat="42.51277" lon="0.16576">
        <ele>756.4</ele>
        <time>2016-07-23T09:01:49Z</time>
      </trkpt>
      <trkpt lat="42.51279" lon="0.16584">
        <ele>756</ele>
        <time>2016-07-23T09:01:50Z</time>
      </trkpt>
      <trkpt lat="42.5128" lon="0.16593">
        <ele>755.6</ele>
        <time>2016-07-23T09:01:51Z</time>
      </trkpt>
      <trkpt lat="42.51281" lon="0.16602">
        <ele>755.2</ele>
        <time>2016-07-23T09:01:52Z</time>
      </trkpt>
      <trkpt lat="42.51282" lon="0.1661">
        <ele>754.8</ele>
        <time>2016-07-23T09:01:53Z</time>
      </trkpt>
      <trkpt lat="42.51284" lon="0.16619">
        <ele>754.3</ele>
        <time>2016-07-23T09:01:54Z</time>
      </trkpt>
      <trkpt lat="42.51284" lon="0.16628">
        <ele>754</ele>
        <time>2016-07-23T09:01:55Z</time>
      </trkpt>
      <trkpt lat="42.51285" lon="0.16637">
        <ele>753.7</ele>
        <time>2016-07-23T09:01:56Z</time>
      </trkpt>
      <trkpt lat="42.51287" lon="0.16645">
        <ele>753.3</ele>
        <time>2016-07-23T09:01:57Z</time>
      </trkpt>
      <trkpt lat="42.51287" lon="0.16653">
        <ele>753</ele>
        <time>2016-07-23T09:01:58Z</time>
      </trkpt>
      <trkpt lat="42.51288" lon="0.1666">
        <ele>752.7</ele>
        <time>2016-07-23T09:01:59Z</time>
      </trkpt>
      <trkpt lat="42.51289" lon="0.16666">
        <ele>752.5</ele>
        <time>2016-07-23T09:02:00Z</time>
      </trkpt>
      <trkpt lat="42.5129" lon="0.16672">
        <ele>752.2</ele>
        <time>2016-07-23T09:02:01Z</time>
      </trkpt>
      <trkpt lat="42.5129" lon="0.16677">
        <ele>752</ele>
        <time>2016-07-23T09:02:02Z</time>
      </trkpt>
      <trkpt lat="42.51291" lon="0.16681">
        <ele>751.8</ele>
        <time>2016-07-23T09:02:03Z</time>
      </trkpt>
      <trkpt lat="42.51291" lon="0.16685">
        <ele>751.6</ele>
        <time>2016-07-23T09:02:04Z</time>
      </trkpt>
      <trkpt lat="42.51292" lon="0.16689">
        <ele>751.4</ele>
        <time>2016-07-23T09:02:05Z</time>
      </trkpt>
      <trkpt lat="42.51292" lon="0.16693">
        <ele>751.3</ele>
        <time>2016-07-23T09:02:06Z</time>
      </trkpt>
      <trkpt lat="42.51293" lon="0.16697">
        <ele>751.2</ele>
        <time>2016-07-23T09:02:07Z</time>
      </trkpt>
      <trkpt lat="42.51293" lon="0.16701">
        <ele>751.1</ele>
        <time>2016-07-23T09:02:08Z</time>
      </trkpt>
      <trkpt lat="42.51294" lon="0.16707">
        <ele>750.9</ele>
        <time>2016-07-23T09:02:10Z</time>
      </trkpt>
      <trkpt lat="42.51295" lon="0.16714">
        <ele>751</ele>
        <time>2016-07-23T09:02:12Z</time>
      </trkpt>
      <trkpt lat="42.51295" lon="0.16721">
        <ele>751.3</ele>
        <time>2016-07-23T09:02:14Z</time>
      </trkpt>
      <trkpt lat="42.51295" lon="0.16728">
        <ele>751.5</ele>
        <time>2016-07-23T09:02:16Z</time>
      </trkpt>
      <trkpt lat="42.51295" lon="0.16735">
        <ele>751.8</ele>
        <time>2016-07-23T09:02:18Z</time>
      </trkpt>
      <trkpt lat="42.51295" lon="0.16742">
        <ele>752.1</ele>
        <time>2016-07-23T09:02:20Z</time>
      </trkpt>
      <trkpt lat="42.51296" lon="0.16746">
        <ele>752.2</ele>
        <time>2016-07-23T09:02:21Z</time>
      </trkpt>
      <trkpt lat="42.51296" lon="0.16753">
        <ele>752.5</ele>
        <time>2016-07-23T09:02:23Z</time>
      </trkpt>
      <trkpt lat="42.51297" lon="0.1676">
        <ele>752.7</ele>
        <time>2016-07-23T09:02:25Z</time>
      </trkpt>
      <trkpt lat="42.51297" lon="0.16763">
        <ele>752.9</ele>
        <time>2016-07-23T09:02:26Z</time>
      </trkpt>
      <trkpt lat="42.51297" lon="0.16767">
        <ele>753</ele>
        <time>2016-07-23T09:02:27Z</time>
      </trkpt>
      <trkpt lat="42.51297" lon="0.16771">
        <ele>753.2</ele>
        <time>2016-07-23T09:02:28Z</time>
      </trkpt>
      <trkpt lat="42.51297" lon="0.16775">
        <ele>753.3</ele>
        <time>2016-07-23T09:02:29Z</time>
      </trkpt>
      <trkpt lat="42.51297" lon="0.16779">
        <ele>753.5</ele>
        <time>2016-07-23T09:02:30Z</time>
      </trkpt>
      <trkpt lat="42.51297" lon="0.16783">
        <ele>753.7</ele>
        <time>2016-07-23T09:02:31Z</time>
      </trkpt>
      <trkpt lat="42.51296" lon="0.16788">
        <ele>753.8</ele>
        <time>2016-07-23T09:02:32Z</time>
      </trkpt>
      <trkpt lat="42.51296" lon="0.16792">
        <ele>754</ele>
        <time>2016-07-23T09:02:33Z</time>
      </trkpt>
      <trkpt lat="42.51296" lon="0.16797">
        <ele>754.2</ele>
        <time>2016-07-23T09:02:34Z</time>
      </trkpt>
      <trkpt lat="42.51295" lon="0.16802">
        <ele>754.4</ele>
        <time>2016-07-23T09:02:35Z</time>
      </trkpt>
      <trkpt lat="42.51295" lon="0.16807">
        <ele>754.6</ele>
        <time>2016-07-23T09:02:36Z</time>
      </trkpt>
      <trkpt lat="42.51294" lon="0.16813">
        <ele>754.8</ele>
        <time>2016-07-23T09:02:37Z</time>
      </trkpt>
      <trkpt lat="42.51292" lon="0.16818">
        <ele>755</ele>
        <time>2016-07-23T09:02:38Z</time>
      </trkpt>
      <trkpt lat="42.51291" lon="0.16824">
        <ele>755.3</ele>
        <time>2016-07-23T09:02:39Z</time>
      </trkpt>
      <trkpt lat="42.51288" lon="0.1683">
        <ele>755.7</ele>
        <time>2016-07-23T09:02:40Z</time>
      </trkpt>
      <trkpt lat="42.51286" lon="0.16836">
        <ele>756.1</ele>
        <time>2016-07-23T09:02:41Z</time>
      </trkpt>
      <trkpt lat="42.51283" lon="0.16842">
        <ele>756.6</ele>
        <time>2016-07-23T09:02:42Z</time>
      </trkpt>
      <trkpt lat="42.51281" lon="0.16848">
        <ele>756.9</ele>
        <time>2016-07-23T09:02:43Z</time>
      </trkpt>
      <trkpt lat="42.5128" lon="0.16854">
        <ele>757.2</ele>
        <time>2016-07-23T09:02:44Z</time>
      </trkpt>
      <trkpt lat="42.5128" lon="0.1686">
        <ele>757.4</ele>
        <time>2016-07-23T09:02:45Z</time>
      </trkpt>
      <trkpt lat="42.51281" lon="0.16866">
        <ele>757.5</ele>
        <time>2016-07-23T09:02:46Z</time>
      </trkpt>
      <trkpt lat="42.51283" lon="0.16871">
        <ele>757.5</ele>
        <time>2016-07-23T09:02:47Z</time>
      </trkpt>
      <trkpt lat="42.51285" lon="0.16875">
        <ele>757.5</ele>
        <time>2016-07-23T09:02:48Z</time>
      </trkpt>
      <trkpt lat="42.51287" lon="0.16879">
        <ele>757.6</ele>
        <time>2016-07-23T09:02:49Z</time>
      </trkpt>
      <trkpt lat="42.51289" lon="0.16883">
        <ele>757.8</ele>
        <time>2016-07-23T09:02:50Z</time>
      </trkpt>
      <trkpt lat="42.51291" lon="0.16887">
        <ele>757.9</ele>
        <time>2016-07-23T09:02:51Z</time>
      </trkpt>
      <trkpt lat="42.51293" lon="0.1689">
        <ele>758.1</ele>
        <time>2016-07-23T09:02:52Z</time>
      </trkpt>
      <trkpt lat="42.51295" lon="0.16894">
        <ele>758.3</ele>
        <time>2016-07-23T09:02:53Z</time>
      </trkpt>
      <trkpt lat="42.51297" lon="0.16898">
        <ele>758.5</ele>
        <time>2016-07-23T09:02:54Z</time>
      </trkpt>
      <trkpt lat="42.51299" lon="0.16902">
        <ele>758.7</ele>
        <time>2016-07-23T09:02:55Z</time>
      </trkpt>
      <trkpt lat="42.513" lon="0.16906">
        <ele>758.9</ele>
        <time>2016-07-23T09:02:56Z</time>
      </trkpt>
      <trkpt lat="42.51302" lon="0.16909">
        <ele>759.1</ele>
        <time>2016-07-23T09:02:57Z</time>
      </trkpt>
      <trkpt lat="42.51303" lon="0.16913">
        <ele>759.4</ele>
        <time>2016-07-23T09:02:58Z</time>
      </trkpt>
      <trkpt lat="42.51304" lon="0.16917">
        <ele>759.6</ele>
        <time>2016-07-23T09:02:59Z</time>
      </trkpt>
      <trkpt lat="42.51305" lon="0.16921">
        <ele>759.8</ele>
        <time>2016-07-23T09:03:00Z</time>
      </trkpt>
      <trkpt lat="42.51306" lon="0.16924">
        <ele>760</ele>
        <time>2016-07-23T09:03:01Z</time>
      </trkpt>
      <trkpt lat="42.51307" lon="0.16928">
        <ele>760.2</ele>
        <time>2016-07-23T09:03:02Z</time>
      </trkpt>
      <trkpt lat="42.51308" lon="0.16932">
        <ele>760.3</ele>
        <time>2016-07-23T09:03:03Z</time>
      </trkpt>
      <trkpt lat="42.51309" lon="0.16935">
        <ele>760.5</ele>
        <time>2016-07-23T09:03:04Z</time>
      </trkpt>
      <trkpt lat="42.5131" lon="0.16939">
        <ele>760.7</ele>
        <time>2016-07-23T09:03:05Z</time>
      </trkpt>
      <trkpt lat="42.5131" lon="0.16943">
        <ele>761</ele>
        <time>2016-07-23T09:03:06Z</time>
      </trkpt>
      <trkpt lat="42.5131" lon="0.16947">
        <ele>761.2</ele>
        <time>2016-07-23T09:03:07Z</time>
      </trkpt>
      <trkpt lat="42.5131" lon="0.16951">
        <ele>761.4</ele>
        <time>2016-07-23T09:03:08Z</time>
      </trkpt>
      <trkpt lat="42.5131" lon="0.16955">
        <ele>761.7</ele>
        <time>2016-07-23T09:03:09Z</time>
      </trkpt>
      <trkpt lat="42.5131" lon="0.16959">
        <ele>762</ele>
        <time>2016-07-23T09:03:10Z</time>
      </trkpt>
      <trkpt lat="42.5131" lon="0.16964">
        <ele>762.5</ele>
        <time>2016-07-23T09:03:11Z</time>
      </trkpt>
      <trkpt lat="42.51309" lon="0.16968">
        <ele>762.9</ele>
        <time>2016-07-23T09:03:12Z</time>
      </trkpt>
      <trkpt lat="42.51309" lon="0.16972">
        <ele>763.4</ele>
        <time>2016-07-23T09:03:13Z</time>
      </trkpt>
      <trkpt lat="42.51308" lon="0.16977">
        <ele>763.8</ele>
        <time>2016-07-23T09:03:14Z</time>
      </trkpt>
      <trkpt lat="42.51308" lon="0.16981">
        <ele>764.3</ele>
        <time>2016-07-23T09:03:15Z</time>
      </trkpt>
      <trkpt lat="42.51307" lon="0.16985">
        <ele>764.7</ele>
        <time>2016-07-23T09:03:16Z</time>
      </trkpt>
      <trkpt lat="42.51307" lon="0.1699">
        <ele>765.2</ele>
        <time>2016-07-23T09:03:17Z</time>
      </trkpt>
      <trkpt lat="42.51307" lon="0.16994">
        <ele>765.6</ele>
        <time>2016-07-23T09:03:18Z</time>
      </trkpt>
      <trkpt lat="42.51307" lon="0.16998">
        <ele>766</ele>
        <time>2016-07-23T09:03:19Z</time>
      </trkpt>
      <trkpt lat="42.51307" lon="0.17002">
        <ele>766.4</ele>
        <time>2016-07-23T09:03:20Z</time>
      </trkpt>
      <trkpt lat="42.51306" lon="0.17006">
        <ele>766.9</ele>
        <time>2016-07-23T09:03:21Z</time>
      </trkpt>
      <trkpt lat="42.51306" lon="0.1701">
        <ele>767.3</ele>
        <time>2016-07-23T09:03:22Z</time>
      </trkpt>
      <trkpt lat="42.51305" lon="0.17014">
        <ele>767.7</ele>
        <time>2016-07-23T09:03:23Z</time>
      </trkpt>
      <trkpt lat="42.51305" lon="0.17018">
        <ele>768.1</ele>
        <time>2016-07-23T09:03:24Z</time>
      </trkpt>
      <trkpt lat="42.51305" lon="0.17022">
        <ele>768.6</ele>
        <time>2016-07-23T09:03:25Z</time>
      </trkpt>
      <trkpt lat="42.51305" lon="0.17026">
        <ele>769</ele>
        <time>2016-07-23T09:03:26Z</time>
      </trkpt>
      <trkpt lat="42.51305" lon="0.17031">
        <ele>769.5</ele>
        <time>2016-07-23T09:03:27Z</time>
      </trkpt>
      <trkpt lat="42.51306" lon="0.17036">
        <ele>770</ele>
        <time>2016-07-23T09:03:28Z</time>
      </trkpt>
      <trkpt lat="42.51306" lon="0.17041">
        <ele>770.4</ele>
        <time>2016-07-23T09:03:29Z</time>
      </trkpt>
      <trkpt lat="42.51306" lon="0.17047">
        <ele>770.7</ele>
        <time>2016-07-23T09:03:30Z</time>
      </trkpt>
      <trkpt lat="42.51307" lon="0.17052">
        <ele>771</ele>
        <time>2016-07-23T09:03:31Z</time>
      </trkpt>
      <trkpt lat="42.51308" lon="0.17058">
        <ele>771.2</ele>
        <time>2016-07-23T09:03:32Z</time>
      </trkpt>
      <trkpt lat="42.51309" lon="0.17064">
        <ele>771.4</ele>
        <time>2016-07-23T09:03:33Z</time>
      </trkpt>
      <trkpt lat="42.5131" lon="0.1707">
        <ele>771.7</ele>
        <time>2016-07-23T09:03:34Z</time>
      </trkpt>
      <trkpt lat="42.51311" lon="0.17076">
        <ele>771.8</ele>
        <time>2016-07-23T09:03:35Z</time>
      </trkpt>
      <trkpt lat="42.51313" lon="0.17082">
        <ele>771.8</ele>
        <time>2016-07-23T09:03:36Z</time>
      </trkpt>
      <trkpt lat="42.51316" lon="0.17088">
        <ele>771.8</ele>
        <time>2016-07-23T09:03:37Z</time>
      </trkpt>
      <trkpt lat="42.51319" lon="0.17093">
        <ele>771.5</ele>
        <time>2016-07-23T09:03:38Z</time>
      </trkpt>
      <trkpt lat="42.51323" lon="0.17097">
        <ele>771.1</ele>
        <time>2016-07-23T09:03:39Z</time>
      </trkpt>
      <trkpt lat="42.51327" lon="0.171">
        <ele>770.6</ele>
        <time>2016-07-23T09:03:40Z</time>
      </trkpt>
      <trkpt lat="42.51332" lon="0.17102">
        <ele>769.8</ele>
        <time>2016-07-23T09:03:41Z</time>
      </trkpt>
      <trkpt lat="42.51338" lon="0.17103">
        <ele>769</ele>
        <time>2016-07-23T09:03:42Z</time>
      </trkpt>
      <trkpt lat="42.51343" lon="0.17102">
        <ele>768.1</ele>
        <time>2016-07-23T09:03:43Z</time>
      </trkpt>
      <trkpt lat="42.51348" lon="0.17099">
        <ele>767.3</ele>
        <time>2016-07-23T09:03:44Z</time>
      </trkpt>
      <trkpt lat="42.51352" lon="0.17096">
        <ele>766.5</ele>
        <time>2016-07-23T09:03:45Z</time>
      </trkpt>
      <trkpt lat="42.51356" lon="0.17091">
        <ele>765.9</ele>
        <time>2016-07-23T09:03:46Z</time>
      </trkpt>
      <trkpt lat="42.51358" lon="0.17087">
        <ele>765.4</ele>
        <time>2016-07-23T09:03:47Z</time>
      </trkpt>
      <trkpt lat="42.51361" lon="0.17082">
        <ele>765.1</ele>
        <time>2016-07-23T09:03:48Z</time>
      </trkpt>
      <trkpt lat="42.51362" lon="0.17077">
        <ele>764.8</ele>
        <time>2016-07-23T09:03:49Z</time>
      </trkpt>
      <trkpt lat="42.51364" lon="0.17072">
        <ele>764.5</ele>
        <time>2016-07-23T09:03:50Z</time>
      </trkpt>
      <trkpt lat="42.51365" lon="0.17068">
        <ele>764.3</ele>
        <time>2016-07-23T09:03:51Z</time>
      </trkpt>
      <trkpt lat="42.51366" lon="0.17063">
        <ele>764.1</ele>
        <time>2016-07-23T09:03:52Z</time>
      </trkpt>
      <trkpt lat="42.51367" lon="0.17058">
        <ele>764</ele>
        <time>2016-07-23T09:03:53Z</time>
      </trkpt>
      <trkpt lat="42.51368" lon="0.17054">
        <ele>763.8</ele>
        <time>2016-07-23T09:03:54Z</time>
      </trkpt>
      <trkpt lat="42.51369" lon="0.17049">
        <ele>763.7</ele>
        <time>2016-07-23T09:03:55Z</time>
      </trkpt>
      <trkpt lat="42.5137" lon="0.17045">
        <ele>763.5</ele>
        <time>2016-07-23T09:03:56Z</time>
      </trkpt>
      <trkpt lat="42.51371" lon="0.17041">
        <ele>763.4</ele>
        <time>2016-07-23T09:03:57Z</time>
      </trkpt>
      <trkpt lat="42.51372" lon="0.17037">
        <ele>763</ele>
        <time>2016-07-23T09:03:58Z</time>
      </trkpt>
      <trkpt lat="42.51373" lon="0.17033">
        <ele>762.7</ele>
        <time>2016-07-23T09:03:59Z</time>
      </trkpt>
      <trkpt lat="42.51373" lon="0.17029">
        <ele>762.4</ele>
        <time>2016-07-23T09:04:00Z</time>
      </trkpt>
      <trkpt lat="42.51373" lon="0.17025">
        <ele>762.2</ele>
        <time>2016-07-23T09:04:01Z</time>
      </trkpt>
      <trkpt lat="42.51373" lon="0.17021">
        <ele>761.9</ele>
        <time>2016-07-23T09:04:02Z</time>
      </trkpt>
      <trkpt lat="42.51373" lon="0.17017">
        <ele>761.7</ele>
        <time>2016-07-23T09:04:03Z</time>
      </trkpt>
      <trkpt lat="42.51373" lon="0.17013">
        <ele>761.5</ele>
        <time>2016-07-23T09:04:04Z</time>
      </trkpt>
      <trkpt lat="42.51373" lon="0.17009">
        <ele>761.2</ele>
        <time>2016-07-23T09:04:05Z</time>
      </trkpt>
      <trkpt lat="42.51373" lon="0.17005">
        <ele>761</ele>
        <time>2016-07-23T09:04:06Z</time>
      </trkpt>
      <trkpt lat="42.51373" lon="0.17002">
        <ele>760.7</ele>
        <time>2016-07-23T09:04:07Z</time>
      </trkpt>
      <trkpt lat="42.51373" lon="0.16998">
        <ele>760.5</ele>
        <time>2016-07-23T09:04:08Z</time>
      </trkpt>
      <trkpt lat="42.51373" lon="0.16994">
        <ele>760.3</ele>
        <time>2016-07-23T09:04:09Z</time>
      </trkpt>
      <trkpt lat="42.51373" lon="0.1699">
        <ele>760</ele>
        <time>2016-07-23T09:04:10Z</time>
      </trkpt>
      <trkpt lat="42.51374" lon="0.16983">
        <ele>759.6</ele>
        <time>2016-07-23T09:04:12Z</time>
      </trkpt>
      <trkpt lat="42.51375" lon="0.16976">
        <ele>759</ele>
        <time>2016-07-23T09:04:14Z</time>
      </trkpt>
      <trkpt lat="42.51376" lon="0.16972">
        <ele>759</ele>
        <time>2016-07-23T09:04:15Z</time>
      </trkpt>
      <trkpt lat="42.51377" lon="0.16965">
        <ele>758.9</ele>
        <time>2016-07-23T09:04:17Z</time>
      </trkpt>
      <trkpt lat="42.51378" lon="0.16962">
        <ele>758.8</ele>
        <time>2016-07-23T09:04:18Z</time>
      </trkpt>
      <trkpt lat="42.51379" lon="0.16955">
        <ele>758.9</ele>
        <time>2016-07-23T09:04:20Z</time>
      </trkpt>
      <trkpt lat="42.5138" lon="0.16948">
        <ele>759.1</ele>
        <time>2016-07-23T09:04:22Z</time>
      </trkpt>
      <trkpt lat="42.51382" lon="0.16942">
        <ele>759.3</ele>
        <time>2016-07-23T09:04:24Z</time>
      </trkpt>
      <trkpt lat="42.51384" lon="0.16935">
        <ele>759.5</ele>
        <time>2016-07-23T09:04:26Z</time>
      </trkpt>
      <trkpt lat="42.51386" lon="0.16929">
        <ele>759.8</ele>
        <time>2016-07-23T09:04:28Z</time>
      </trkpt>
      <trkpt lat="42.51387" lon="0.16923">
        <ele>760</ele>
        <time>2016-07-23T09:04:30Z</time>
      </trkpt>
      <trkpt lat="42.51389" lon="0.16917">
        <ele>760.3</ele>
        <time>2016-07-23T09:04:32Z</time>
      </trkpt>
      <trkpt lat="42.5139" lon="0.16911">
        <ele>760.5</ele>
        <time>2016-07-23T09:04:34Z</time>
      </trkpt>
      <trkpt lat="42.51392" lon="0.16905">
        <ele>760.7</ele>
        <time>2016-07-23T09:04:36Z</time>
      </trkpt>
      <trkpt lat="42.51394" lon="0.169">
        <ele>761.1</ele>
        <time>2016-07-23T09:04:38Z</time>
      </trkpt>
      <trkpt lat="42.51397" lon="0.16897">
        <ele>761.8</ele>
        <time>2016-07-23T09:04:40Z</time>
      </trkpt>
      <trkpt lat="42.51402" lon="0.16895">
        <ele>762.7</ele>
        <time>2016-07-23T09:04:42Z</time>
      </trkpt>
      <trkpt lat="42.51406" lon="0.16894">
        <ele>763.7</ele>
        <time>2016-07-23T09:04:44Z</time>
      </trkpt>
      <trkpt lat="42.5141" lon="0.16894">
        <ele>764.7</ele>
        <time>2016-07-23T09:04:46Z</time>
      </trkpt>
      <trkpt lat="42.51415" lon="0.16894">
        <ele>765.8</ele>
        <time>2016-07-23T09:04:48Z</time>
      </trkpt>
      <trkpt lat="42.51419" lon="0.16894">
        <ele>766.8</ele>
        <time>2016-07-23T09:04:50Z</time>
      </trkpt>
      <trkpt lat="42.51424" lon="0.16894">
        <ele>767.8</ele>
        <time>2016-07-23T09:04:52Z</time>
      </trkpt>
      <trkpt lat="42.51428" lon="0.16892">
        <ele>768.7</ele>
        <time>2016-07-23T09:04:54Z</time>
      </trkpt>
      <trkpt lat="42.51432" lon="0.1689">
        <ele>769.6</ele>
        <time>2016-07-23T09:04:56Z</time>
      </trkpt>
      <trkpt lat="42.51436" lon="0.16888">
        <ele>770.4</ele>
        <time>2016-07-23T09:04:58Z</time>
      </trkpt>
      <trkpt lat="42.5144" lon="0.16887">
        <ele>771.2</ele>
        <time>2016-07-23T09:05:00Z</time>
      </trkpt>
      <trkpt lat="42.51443" lon="0.16885">
        <ele>772</ele>
        <time>2016-07-23T09:05:02Z</time>
      </trkpt>
      <trkpt lat="42.51447" lon="0.16884">
        <ele>772.9</ele>
        <time>2016-07-23T09:05:04Z</time>
      </trkpt>
      <trkpt lat="42.51451" lon="0.16883">
        <ele>773.7</ele>
        <time>2016-07-23T09:05:06Z</time>
      </trkpt>
      <trkpt lat="42.51455" lon="0.16883">
        <ele>774.7</ele>
        <time>2016-07-23T09:05:08Z</time>
      </trkpt>
      <trkpt lat="42.5146" lon="0.16884">
        <ele>775.5</ele>
        <time>2016-07-23T09:05:10Z</time>
      </trkpt>
      <trkpt lat="42.51464" lon="0.16887">
        <ele>775.8</ele>
        <time>2016-07-23T09:05:12Z</time>
      </trkpt>
      <trkpt lat="42.51468" lon="0.16891">
        <ele>776.2</ele>
        <time>2016-07-23T09:05:14Z</time>
      </trkpt>
      <trkpt lat="42.51471" lon="0.16896">
        <ele>776.7</ele>
        <time>2016-07-23T09:05:16Z</time>
      </trkpt>
      <trkpt lat="42.51473" lon="0.169">
        <ele>776.9</ele>
        <time>2016-07-23T09:05:17Z</time>
      </trkpt>
      <trkpt lat="42.51474" lon="0.16903">
        <ele>777.2</ele>
        <time>2016-07-23T09:05:18Z</time>
      </trkpt>
      <trkpt lat="42.51475" lon="0.16907">
        <ele>777.4</ele>
        <time>2016-07-23T09:05:19Z</time>
      </trkpt>
      <trkpt lat="42.51475" lon="0.16911">
        <ele>777.6</ele>
        <time>2016-07-23T09:05:20Z</time>
      </trkpt>
      <trkpt lat="42.51476" lon="0.16915">
        <ele>777.8</ele>
        <time>2016-07-23T09:05:21Z</time>
      </trkpt>
      <trkpt lat="42.51477" lon="0.16918">
        <ele>778.1</ele>
        <time>2016-07-23T09:05:22Z</time>
      </trkpt>
      <trkpt lat="42.51477" lon="0.16922">
        <ele>778.3</ele>
        <time>2016-07-23T09:05:23Z</time>
      </trkpt>
      <trkpt lat="42.51479" lon="0.16929">
        <ele>778.7</ele>
        <time>2016-07-23T09:05:25Z</time>
      </trkpt>
      <trkpt lat="42.51481" lon="0.16936">
        <ele>779.2</ele>
        <time>2016-07-23T09:05:27Z</time>
      </trkpt>
      <trkpt lat="42.51481" lon="0.16939">
        <ele>779.4</ele>
        <time>2016-07-23T09:05:28Z</time>
      </trkpt>
      <trkpt lat="42.51482" lon="0.16943">
        <ele>779.6</ele>
        <time>2016-07-23T09:05:29Z</time>
      </trkpt>
      <trkpt lat="42.51484" lon="0.1695">
        <ele>780.1</ele>
        <time>2016-07-23T09:05:31Z</time>
      </trkpt>
      <trkpt lat="42.51484" lon="0.16954">
        <ele>780.3</ele>
        <time>2016-07-23T09:05:32Z</time>
      </trkpt>
      <trkpt lat="42.51485" lon="0.16957">
        <ele>780.6</ele>
        <time>2016-07-23T09:05:33Z</time>
      </trkpt>
      <trkpt lat="42.51486" lon="0.16962">
        <ele>780.7</ele>
        <time>2016-07-23T09:05:34Z</time>
      </trkpt>
      <trkpt lat="42.51487" lon="0.16966">
        <ele>780.8</ele>
        <time>2016-07-23T09:05:35Z</time>
      </trkpt>
      <trkpt lat="42.51487" lon="0.1697">
        <ele>780.9</ele>
        <time>2016-07-23T09:05:36Z</time>
      </trkpt>
      <trkpt lat="42.51487" lon="0.16974">
        <ele>781</ele>
        <time>2016-07-23T09:05:37Z</time>
      </trkpt>
      <trkpt lat="42.51487" lon="0.16978">
        <ele>781.1</ele>
        <time>2016-07-23T09:05:38Z</time>
      </trkpt>
      <trkpt lat="42.51487" lon="0.16982">
        <ele>781.1</ele>
        <time>2016-07-23T09:05:39Z</time>
      </trkpt>
      <trkpt lat="42.51486" lon="0.16987">
        <ele>781.1</ele>
        <time>2016-07-23T09:05:40Z</time>
      </trkpt>
      <trkpt lat="42.51486" lon="0.16991">
        <ele>781.2</ele>
        <time>2016-07-23T09:05:41Z</time>
      </trkpt>
      <trkpt lat="42.51486" lon="0.16995">
        <ele>781.3</ele>
        <time>2016-07-23T09:05:42Z</time>
      </trkpt>
      <trkpt lat="42.51486" lon="0.16999">
        <ele>781.3</ele>
        <time>2016-07-23T09:05:43Z</time>
      </trkpt>
      <trkpt lat="42.51487" lon="0.17003">
        <ele>781.4</ele>
        <time>2016-07-23T09:05:44Z</time>
      </trkpt>
      <trkpt lat="42.51487" lon="0.17008">
        <ele>781.5</ele>
        <time>2016-07-23T09:05:45Z</time>
      </trkpt>
      <trkpt lat="42.51487" lon="0.17012">
        <ele>781.6</ele>
        <time>2016-07-23T09:05:46Z</time>
      </trkpt>
      <trkpt lat="42.51488" lon="0.17016">
        <ele>781.8</ele>
        <time>2016-07-23T09:05:47Z</time>
      </trkpt>
      <trkpt lat="42.51489" lon="0.17021">
        <ele>782</ele>
        <time>2016-07-23T09:05:48Z</time>
      </trkpt>
      <trkpt lat="42.5149" lon="0.17025">
        <ele>782.2</ele>
        <time>2016-07-23T09:05:49Z</time>
      </trkpt>
      <trkpt lat="42.51491" lon="0.1703">
        <ele>782.5</ele>
        <time>2016-07-23T09:05:50Z</time>
      </trkpt>
      <trkpt lat="42.51493" lon="0.17034">
        <ele>782.8</ele>
        <time>2016-07-23T09:05:51Z</time>
      </trkpt>
      <trkpt lat="42.51494" lon="0.17039">
        <ele>783.1</ele>
        <time>2016-07-23T09:05:52Z</time>
      </trkpt>
      <trkpt lat="42.51496" lon="0.17043">
        <ele>783.4</ele>
        <time>2016-07-23T09:05:53Z</time>
      </trkpt>
      <trkpt lat="42.51497" lon="0.17047">
        <ele>783.7</ele>
        <time>2016-07-23T09:05:54Z</time>
      </trkpt>
      <trkpt lat="42.51499" lon="0.17052">
        <ele>784.1</ele>
        <time>2016-07-23T09:05:55Z</time>
      </trkpt>
      <trkpt lat="42.51501" lon="0.17056">
        <ele>784.4</ele>
        <time>2016-07-23T09:05:56Z</time>
      </trkpt>
      <trkpt lat="42.51502" lon="0.1706">
        <ele>784.8</ele>
        <time>2016-07-23T09:05:57Z</time>
      </trkpt>
      <trkpt lat="42.51503" lon="0.17065">
        <ele>785.1</ele>
        <time>2016-07-23T09:05:58Z</time>
      </trkpt>
      <trkpt lat="42.51505" lon="0.17069">
        <ele>785.4</ele>
        <time>2016-07-23T09:05:59Z</time>
      </trkpt>
      <trkpt lat="42.51506" lon="0.17074">
        <ele>785.8</ele>
        <time>2016-07-23T09:06:00Z</time>
      </trkpt>
      <trkpt lat="42.51507" lon="0.17078">
        <ele>786.1</ele>
        <time>2016-07-23T09:06:01Z</time>
      </trkpt>
      <trkpt lat="42.51509" lon="0.17082">
        <ele>786.5</ele>
        <time>2016-07-23T09:06:02Z</time>
      </trkpt>
      <trkpt lat="42.5151" lon="0.17086">
        <ele>787</ele>
        <time>2016-07-23T09:06:03Z</time>
      </trkpt>
      <trkpt lat="42.51512" lon="0.1709">
        <ele>787.5</ele>
        <time>2016-07-23T09:06:04Z</time>
      </trkpt>
      <trkpt lat="42.51514" lon="0.17094">
        <ele>788</ele>
        <time>2016-07-23T09:06:05Z</time>
      </trkpt>
      <trkpt lat="42.51517" lon="0.17097">
        <ele>788.6</ele>
        <time>2016-07-23T09:06:06Z</time>
      </trkpt>
      <trkpt lat="42.51519" lon="0.171">
        <ele>789.2</ele>
        <time>2016-07-23T09:06:07Z</time>
      </trkpt>
      <trkpt lat="42.51523" lon="0.17101">
        <ele>789.8</ele>
        <time>2016-07-23T09:06:08Z</time>
      </trkpt>
      <trkpt lat="42.51526" lon="0.17102">
        <ele>790.5</ele>
        <time>2016-07-23T09:06:09Z</time>
      </trkpt>
      <trkpt lat="42.51529" lon="0.17102">
        <ele>791.1</ele>
        <time>2016-07-23T09:06:10Z</time>
      </trkpt>
      <trkpt lat="42.51532" lon="0.17102">
        <ele>791.7</ele>
        <time>2016-07-23T09:06:11Z</time>
      </trkpt>
      <trkpt lat="42.51535" lon="0.17102">
        <ele>792.3</ele>
        <time>2016-07-23T09:06:12Z</time>
      </trkpt>
      <trkpt lat="42.51538" lon="0.17101">
        <ele>792.8</ele>
        <time>2016-07-23T09:06:13Z</time>
      </trkpt>
      <trkpt lat="42.51541" lon="0.17099">
        <ele>793.3</ele>
        <time>2016-07-23T09:06:14Z</time>
      </trkpt>
      <trkpt lat="42.51544" lon="0.17097">
        <ele>793.4</ele>
        <time>2016-07-23T09:06:15Z</time>
      </trkpt>
      <trkpt lat="42.51547" lon="0.17095">
        <ele>793.3</ele>
        <time>2016-07-23T09:06:16Z</time>
      </trkpt>
      <trkpt lat="42.51549" lon="0.17094">
        <ele>793.2</ele>
        <time>2016-07-23T09:06:17Z</time>
      </trkpt>
      <trkpt lat="42.51552" lon="0.17092">
        <ele>793.2</ele>
        <time>2016-07-23T09:06:18Z</time>
      </trkpt>
      <trkpt lat="42.51555" lon="0.17091">
        <ele>793.1</ele>
        <time>2016-07-23T09:06:19Z</time>
      </trkpt>
      <trkpt lat="42.51557" lon="0.1709">
        <ele>793.1</ele>
        <time>2016-07-23T09:06:20Z</time>
      </trkpt>
      <trkpt lat="42.51563" lon="0.17088">
        <ele>793</ele>
        <time>2016-07-23T09:06:22Z</time>
      </trkpt>
      <trkpt lat="42.51565" lon="0.17087">
        <ele>793</ele>
        <time>2016-07-23T09:06:23Z</time>
      </trkpt>
      <trkpt lat="42.51568" lon="0.17086">
        <ele>793</ele>
        <time>2016-07-23T09:06:24Z</time>
      </trkpt>
      <trkpt lat="42.51571" lon="0.17084">
        <ele>792.9</ele>
        <time>2016-07-23T09:06:25Z</time>
      </trkpt>
      <trkpt lat="42.51574" lon="0.17083">
        <ele>792.9</ele>
        <time>2016-07-23T09:06:26Z</time>
      </trkpt>
      <trkpt lat="42.51576" lon="0.17082">
        <ele>792.8</ele>
        <time>2016-07-23T09:06:27Z</time>
      </trkpt>
      <trkpt lat="42.51579" lon="0.17081">
        <ele>792.8</ele>
        <time>2016-07-23T09:06:28Z</time>
      </trkpt>
      <trkpt lat="42.51581" lon="0.1708">
        <ele>792.7</ele>
        <time>2016-07-23T09:06:29Z</time>
      </trkpt>
      <trkpt lat="42.51587" lon="0.17078">
        <ele>792.6</ele>
        <time>2016-07-23T09:06:31Z</time>
      </trkpt>
      <trkpt lat="42.51592" lon="0.17076">
        <ele>792.6</ele>
        <time>2016-07-23T09:06:33Z</time>
      </trkpt>
      <trkpt lat="42.51594" lon="0.17075">
        <ele>792.5</ele>
        <time>2016-07-23T09:06:34Z</time>
      </trkpt>
      <trkpt lat="42.51597" lon="0.17074">
        <ele>792.5</ele>
        <time>2016-07-23T09:06:35Z</time>
      </trkpt>
      <trkpt lat="42.516" lon="0.17073">
        <ele>792.4</ele>
        <time>2016-07-23T09:06:36Z</time>
      </trkpt>
      <trkpt lat="42.51602" lon="0.17072">
        <ele>792.3</ele>
        <time>2016-07-23T09:06:37Z</time>
      </trkpt>
      <trkpt lat="42.51608" lon="0.17071">
        <ele>792.3</ele>
        <time>2016-07-23T09:06:39Z</time>
      </trkpt>
      <trkpt lat="42.5161" lon="0.17071">
        <ele>792.3</ele>
        <time>2016-07-23T09:06:40Z</time>
      </trkpt>
      <trkpt lat="42.51613" lon="0.17071">
        <ele>792.3</ele>
        <time>2016-07-23T09:06:41Z</time>
      </trkpt>
      <trkpt lat="42.51616" lon="0.17071">
        <ele>792.4</ele>
        <time>2016-07-23T09:06:42Z</time>
      </trkpt>
      <trkpt lat="42.51619" lon="0.17072">
        <ele>792.5</ele>
        <time>2016-07-23T09:06:43Z</time>
      </trkpt>
      <trkpt lat="42.51623" lon="0.17076">
        <ele>792.8</ele>
        <time>2016-07-23T09:06:45Z</time>
      </trkpt>
      <trkpt lat="42.51627" lon="0.17081">
        <ele>793.3</ele>
        <time>2016-07-23T09:06:47Z</time>
      </trkpt>
      <trkpt lat="42.51629" lon="0.17086">
        <ele>793.7</ele>
        <time>2016-07-23T09:06:49Z</time>
      </trkpt>
      <trkpt lat="42.51629" lon="0.17092">
        <ele>794.2</ele>
        <time>2016-07-23T09:06:51Z</time>
      </trkpt>
      <trkpt lat="42.51628" lon="0.17099">
        <ele>794.8</ele>
        <time>2016-07-23T09:06:53Z</time>
      </trkpt>
      <trkpt lat="42.51627" lon="0.17106">
        <ele>795.4</ele>
        <time>2016-07-23T09:06:55Z</time>
      </trkpt>
      <trkpt lat="42.51625" lon="0.17112">
        <ele>795.9</ele>
        <time>2016-07-23T09:06:57Z</time>
      </trkpt>
      <trkpt lat="42.51623" lon="0.17118">
        <ele>796.3</ele>
        <time>2016-07-23T09:06:59Z</time>
      </trkpt>
      <trkpt lat="42.51621" lon="0.17122">
        <ele>796.6</ele>
        <time>2016-07-23T09:07:01Z</time>
      </trkpt>
      <trkpt lat="42.51619" lon="0.17126">
        <ele>797</ele>
        <time>2016-07-23T09:07:03Z</time>
      </trkpt>
      <trkpt lat="42.51617" lon="0.17131">
        <ele>797.4</ele>
        <time>2016-07-23T09:07:05Z</time>
      </trkpt>
      <trkpt lat="42.51615" lon="0.17135">
        <ele>797.7</ele>
        <time>2016-07-23T09:07:07Z</time>
      </trkpt>
      <trkpt lat="42.51613" lon="0.17139">
        <ele>798.1</ele>
        <time>2016-07-23T09:07:09Z</time>
      </trkpt>
      <trkpt lat="42.51612" lon="0.17145">
        <ele>798.5</ele>
        <time>2016-07-23T09:07:11Z</time>
      </trkpt>
      <trkpt lat="42.51611" lon="0.1715">
        <ele>799</ele>
        <time>2016-07-23T09:07:13Z</time>
      </trkpt>
      <trkpt lat="42.51611" lon="0.17156">
        <ele>799.5</ele>
        <time>2016-07-23T09:07:15Z</time>
      </trkpt>
      <trkpt lat="42.5161" lon="0.17163">
        <ele>800.1</ele>
        <time>2016-07-23T09:07:17Z</time>
      </trkpt>
      <trkpt lat="42.51611" lon="0.17169">
        <ele>800.7</ele>
        <time>2016-07-23T09:07:19Z</time>
      </trkpt>
      <trkpt lat="42.51612" lon="0.17175">
        <ele>801.3</ele>
        <time>2016-07-23T09:07:21Z</time>
      </trkpt>
      <trkpt lat="42.51614" lon="0.17181">
        <ele>802</ele>
        <time>2016-07-23T09:07:23Z</time>
      </trkpt>
      <trkpt lat="42.51615" lon="0.17186">
        <ele>802.7</ele>
        <time>2016-07-23T09:07:25Z</time>
      </trkpt>
      <trkpt lat="42.51618" lon="0.17192">
        <ele>803.5</ele>
        <time>2016-07-23T09:07:27Z</time>
      </trkpt>
      <trkpt lat="42.51621" lon="0.17197">
        <ele>804.2</ele>
        <time>2016-07-23T09:07:29Z</time>
      </trkpt>
      <trkpt lat="42.51623" lon="0.17202">
        <ele>805.1</ele>
        <time>2016-07-23T09:07:31Z</time>
      </trkpt>
      <trkpt lat="42.51627" lon="0.17207">
        <ele>805.8</ele>
        <time>2016-07-23T09:07:33Z</time>
      </trkpt>
      <trkpt lat="42.51631" lon="0.17211">
        <ele>806.3</ele>
        <time>2016-07-23T09:07:35Z</time>
      </trkpt>
      <trkpt lat="42.51635" lon="0.17215">
        <ele>806.7</ele>
        <time>2016-07-23T09:07:37Z</time>
      </trkpt>
      <trkpt lat="42.51639" lon="0.17218">
        <ele>806.9</ele>
        <time>2016-07-23T09:07:39Z</time>
      </trkpt>
      <trkpt lat="42.51644" lon="0.17219">
        <ele>807</ele>
        <time>2016-07-23T09:07:41Z</time>
      </trkpt>
      <trkpt lat="42.51648" lon="0.17218">
        <ele>806.9</ele>
        <time>2016-07-23T09:07:43Z</time>
      </trkpt>
      <trkpt lat="42.51652" lon="0.17217">
        <ele>806.8</ele>
        <time>2016-07-23T09:07:45Z</time>
      </trkpt>
      <trkpt lat="42.51656" lon="0.17216">
        <ele>806.8</ele>
        <time>2016-07-23T09:07:47Z</time>
      </trkpt>
      <trkpt lat="42.51661" lon="0.17216">
        <ele>806.8</ele>
        <time>2016-07-23T09:07:49Z</time>
      </trkpt>
      <trkpt lat="42.51665" lon="0.17216">
        <ele>806.8</ele>
        <time>2016-07-23T09:07:51Z</time>
      </trkpt>
      <trkpt lat="42.51669" lon="0.17216">
        <ele>806.7</ele>
        <time>2016-07-23T09:07:53Z</time>
      </trkpt>
      <trkpt lat="42.51674" lon="0.17216">
        <ele>806.7</ele>
        <time>2016-07-23T09:07:55Z</time>
      </trkpt>
      <trkpt lat="42.51678" lon="0.17216">
        <ele>806.8</ele>
        <time>2016-07-23T09:07:57Z</time>
      </trkpt>
      <trkpt lat="42.51683" lon="0.17216">
        <ele>806.8</ele>
        <time>2016-07-23T09:07:59Z</time>
      </trkpt>
      <trkpt lat="42.51687" lon="0.17217">
        <ele>806.9</ele>
        <time>2016-07-23T09:08:01Z</time>
      </trkpt>
      <trkpt lat="42.51692" lon="0.1722">
        <ele>807.2</ele>
        <time>2016-07-23T09:08:03Z</time>
      </trkpt>
      <trkpt lat="42.51695" lon="0.17222">
        <ele>807.4</ele>
        <time>2016-07-23T09:08:04Z</time>
      </trkpt>
      <trkpt lat="42.51697" lon="0.17225">
        <ele>807.7</ele>
        <time>2016-07-23T09:08:05Z</time>
      </trkpt>
      <trkpt lat="42.51698" lon="0.17228">
        <ele>808.1</ele>
        <time>2016-07-23T09:08:06Z</time>
      </trkpt>
      <trkpt lat="42.517" lon="0.17231">
        <ele>808.5</ele>
        <time>2016-07-23T09:08:07Z</time>
      </trkpt>
      <trkpt lat="42.51701" lon="0.17235">
        <ele>808.9</ele>
        <time>2016-07-23T09:08:08Z</time>
      </trkpt>
      <trkpt lat="42.51702" lon="0.17239">
        <ele>809.3</ele>
        <time>2016-07-23T09:08:09Z</time>
      </trkpt>
      <trkpt lat="42.51702" lon="0.17243">
        <ele>809.7</ele>
        <time>2016-07-23T09:08:10Z</time>
      </trkpt>
      <trkpt lat="42.51702" lon="0.17247">
        <ele>810.2</ele>
        <time>2016-07-23T09:08:11Z</time>
      </trkpt>
      <trkpt lat="42.51701" lon="0.17251">
        <ele>810.6</ele>
        <time>2016-07-23T09:08:12Z</time>
      </trkpt>
      <trkpt lat="42.517" lon="0.17255">
        <ele>811</ele>
        <time>2016-07-23T09:08:13Z</time>
      </trkpt>
      <trkpt lat="42.51698" lon="0.17259">
        <ele>811.4</ele>
        <time>2016-07-23T09:08:14Z</time>
      </trkpt>
      <trkpt lat="42.51696" lon="0.17263">
        <ele>811.8</ele>
        <time>2016-07-23T09:08:15Z</time>
      </trkpt>
      <trkpt lat="42.51694" lon="0.17266">
        <ele>812.1</ele>
        <time>2016-07-23T09:08:16Z</time>
      </trkpt>
      <trkpt lat="42.51692" lon="0.17269">
        <ele>812.4</ele>
        <time>2016-07-23T09:08:17Z</time>
      </trkpt>
      <trkpt lat="42.51689" lon="0.17272">
        <ele>812.7</ele>
        <time>2016-07-23T09:08:18Z</time>
      </trkpt>
      <trkpt lat="42.51687" lon="0.17274">
        <ele>812.9</ele>
        <time>2016-07-23T09:08:19Z</time>
      </trkpt>
      <trkpt lat="42.51684" lon="0.17277">
        <ele>813.2</ele>
        <time>2016-07-23T09:08:20Z</time>
      </trkpt>
      <trkpt lat="42.51682" lon="0.1728">
        <ele>813.4</ele>
        <time>2016-07-23T09:08:21Z</time>
      </trkpt>
      <trkpt lat="42.51679" lon="0.17282">
        <ele>813.6</ele>
        <time>2016-07-23T09:08:22Z</time>
      </trkpt>
      <trkpt lat="42.51677" lon="0.17284">
        <ele>813.9</ele>
        <time>2016-07-23T09:08:23Z</time>
      </trkpt>
      <trkpt lat="42.51675" lon="0.17287">
        <ele>814.1</ele>
        <time>2016-07-23T09:08:24Z</time>
      </trkpt>
      <trkpt lat="42.51671" lon="0.17291">
        <ele>814.5</ele>
        <time>2016-07-23T09:08:26Z</time>
      </trkpt>
      <trkpt lat="42.51668" lon="0.17295">
        <ele>814.7</ele>
        <time>2016-07-23T09:08:28Z</time>
      </trkpt>
      <trkpt lat="42.51664" lon="0.17298">
        <ele>814.8</ele>
        <time>2016-07-23T09:08:30Z</time>
      </trkpt>
      <trkpt lat="42.5166" lon="0.17301">
        <ele>814.9</ele>
        <time>2016-07-23T09:08:32Z</time>
      </trkpt>
      <trkpt lat="42.51656" lon="0.17303">
        <ele>815</ele>
        <time>2016-07-23T09:08:34Z</time>
      </trkpt>
      <trkpt lat="42.51652" lon="0.17305">
        <ele>815.1</ele>
        <time>2016-07-23T09:08:36Z</time>
      </trkpt>
      <trkpt lat="42.51647" lon="0.17306">
        <ele>815.1</ele>
        <time>2016-07-23T09:08:38Z</time>
      </trkpt>
      <trkpt lat="42.51643" lon="0.17307">
        <ele>815.1</ele>
        <time>2016-07-23T09:08:40Z</time>
      </trkpt>
      <trkpt lat="42.51638" lon="0.17308">
        <ele>815.1</ele>
        <time>2016-07-23T09:08:42Z</time>
      </trkpt>
      <trkpt lat="42.51634" lon="0.17311">
        <ele>815.2</ele>
        <time>2016-07-23T09:08:44Z</time>
      </trkpt>
      <trkpt lat="42.5163" lon="0.17315">
        <ele>815.4</ele>
        <time>2016-07-23T09:08:46Z</time>
      </trkpt>
      <trkpt lat="42.51626" lon="0.17319">
        <ele>815.6</ele>
        <time>2016-07-23T09:08:48Z</time>
      </trkpt>
      <trkpt lat="42.51623" lon="0.17323">
        <ele>815.6</ele>
        <time>2016-07-23T09:08:50Z</time>
      </trkpt>
      <trkpt lat="42.5162" lon="0.17329">
        <ele>815.4</ele>
        <time>2016-07-23T09:08:52Z</time>
      </trkpt>
      <trkpt lat="42.51617" lon="0.17334">
        <ele>815.1</ele>
        <time>2016-07-23T09:08:54Z</time>
      </trkpt>
      <trkpt lat="42.51614" lon="0.17338">
        <ele>814.8</ele>
        <time>2016-07-23T09:08:56Z</time>
      </trkpt>
      <trkpt lat="42.5161" lon="0.17342">
        <ele>814.3</ele>
        <time>2016-07-23T09:08:58Z</time>
      </trkpt>
      <trkpt lat="42.51607" lon="0.17346">
        <ele>814</ele>
        <time>2016-07-23T09:09:00Z</time>
      </trkpt>
      <trkpt lat="42.51604" lon="0.17351">
        <ele>814</ele>
        <time>2016-07-23T09:09:02Z</time>
      </trkpt>
      <trkpt lat="42.51602" lon="0.17355">
        <ele>813.9</ele>
        <time>2016-07-23T09:09:04Z</time>
      </trkpt>
      <trkpt lat="42.516" lon="0.17359">
        <ele>813.7</ele>
        <time>2016-07-23T09:09:06Z</time>
      </trkpt>
      <trkpt lat="42.51597" lon="0.17362">
        <ele>813.3</ele>
        <time>2016-07-23T09:09:08Z</time>
      </trkpt>
      <trkpt lat="42.51594" lon="0.17365">
        <ele>813.1</ele>
        <time>2016-07-23T09:09:10Z</time>
      </trkpt>
      <trkpt lat="42.51593" lon="0.1737">
        <ele>813.2</ele>
        <time>2016-07-23T09:09:12Z</time>
      </trkpt>
      <trkpt lat="42.51593" lon="0.17375">
        <ele>813.5</ele>
        <time>2016-07-23T09:09:14Z</time>
      </trkpt>
      <trkpt lat="42.51593" lon="0.1738">
        <ele>814.2</ele>
        <time>2016-07-23T09:09:16Z</time>
      </trkpt>
      <trkpt lat="42.51594" lon="0.17385">
        <ele>814.9</ele>
        <time>2016-07-23T09:09:18Z</time>
      </trkpt>
      <trkpt lat="42.51595" lon="0.1739">
        <ele>815.7</ele>
        <time>2016-07-23T09:09:20Z</time>
      </trkpt>
      <trkpt lat="42.51597" lon="0.17395">
        <ele>816.5</ele>
        <time>2016-07-23T09:09:22Z</time>
      </trkpt>
      <trkpt lat="42.51599" lon="0.17398">
        <ele>817.3</ele>
        <time>2016-07-23T09:09:24Z</time>
      </trkpt>
      <trkpt lat="42.51601" lon="0.17402">
        <ele>818</ele>
        <time>2016-07-23T09:09:26Z</time>
      </trkpt>
      <trkpt lat="42.51604" lon="0.17406">
        <ele>818.9</ele>
        <time>2016-07-23T09:09:28Z</time>
      </trkpt>
      <trkpt lat="42.51607" lon="0.17409">
        <ele>819.8</ele>
        <time>2016-07-23T09:09:30Z</time>
      </trkpt>
      <trkpt lat="42.5161" lon="0.17412">
        <ele>820.7</ele>
        <time>2016-07-23T09:09:32Z</time>
      </trkpt>
      <trkpt lat="42.51613" lon="0.17415">
        <ele>821.5</ele>
        <time>2016-07-23T09:09:34Z</time>
      </trkpt>
      <trkpt lat="42.51616" lon="0.17419">
        <ele>822.4</ele>
        <time>2016-07-23T09:09:36Z</time>
      </trkpt>
      <trkpt lat="42.5162" lon="0.17422">
        <ele>823.3</ele>
        <time>2016-07-23T09:09:38Z</time>
      </trkpt>
      <trkpt lat="42.51624" lon="0.17425">
        <ele>824.1</ele>
        <time>2016-07-23T09:09:40Z</time>
      </trkpt>
      <trkpt lat="42.51627" lon="0.17426">
        <ele>824.5</ele>
        <time>2016-07-23T09:09:42Z</time>
      </trkpt>
      <trkpt lat="42.51631" lon="0.17429">
        <ele>824.7</ele>
        <time>2016-07-23T09:09:44Z</time>
      </trkpt>
      <trkpt lat="42.51634" lon="0.17432">
        <ele>825</ele>
        <time>2016-07-23T09:09:46Z</time>
      </trkpt>
      <trkpt lat="42.51637" lon="0.17435">
        <ele>825.2</ele>
        <time>2016-07-23T09:09:48Z</time>
      </trkpt>
      <trkpt lat="42.5164" lon="0.17438">
        <ele>825.6</ele>
        <time>2016-07-23T09:09:50Z</time>
      </trkpt>
      <trkpt lat="42.51643" lon="0.17442">
        <ele>825.9</ele>
        <time>2016-07-23T09:09:52Z</time>
      </trkpt>
      <trkpt lat="42.51646" lon="0.17446">
        <ele>826.3</ele>
        <time>2016-07-23T09:09:54Z</time>
      </trkpt>
      <trkpt lat="42.51649" lon="0.1745">
        <ele>826.6</ele>
        <time>2016-07-23T09:09:56Z</time>
      </trkpt>
      <trkpt lat="42.51652" lon="0.17454">
        <ele>826.9</ele>
        <time>2016-07-23T09:09:58Z</time>
      </trkpt>
      <trkpt lat="42.51654" lon="0.17459">
        <ele>827.3</ele>
        <time>2016-07-23T09:10:00Z</time>
      </trkpt>
      <trkpt lat="42.51656" lon="0.17464">
        <ele>827.8</ele>
        <time>2016-07-23T09:10:02Z</time>
      </trkpt>
      <trkpt lat="42.51658" lon="0.17469">
        <ele>828.3</ele>
        <time>2016-07-23T09:10:04Z</time>
      </trkpt>
      <trkpt lat="42.51659" lon="0.17474">
        <ele>828.9</ele>
        <time>2016-07-23T09:10:06Z</time>
      </trkpt>
      <trkpt lat="42.51659" lon="0.1748">
        <ele>829.5</ele>
        <time>2016-07-23T09:10:08Z</time>
      </trkpt>
      <trkpt lat="42.51658" lon="0.17485">
        <ele>830.1</ele>
        <time>2016-07-23T09:10:10Z</time>
      </trkpt>
      <trkpt lat="42.51658" lon="0.1749">
        <ele>830.6</ele>
        <time>2016-07-23T09:10:12Z</time>
      </trkpt>
      <trkpt lat="42.51658" lon="0.17495">
        <ele>831.2</ele>
        <time>2016-07-23T09:10:14Z</time>
      </trkpt>
      <trkpt lat="42.51658" lon="0.175">
        <ele>831.7</ele>
        <time>2016-07-23T09:10:16Z</time>
      </trkpt>
      <trkpt lat="42.51657" lon="0.17506">
        <ele>832.4</ele>
        <time>2016-07-23T09:10:18Z</time>
      </trkpt>
      <trkpt lat="42.51657" lon="0.17512">
        <ele>833</ele>
        <time>2016-07-23T09:10:20Z</time>
      </trkpt>
      <trkpt lat="42.51657" lon="0.17518">
        <ele>833.6</ele>
        <time>2016-07-23T09:10:22Z</time>
      </trkpt>
      <trkpt lat="42.51658" lon="0.17523">
        <ele>834.2</ele>
        <time>2016-07-23T09:10:24Z</time>
      </trkpt>
      <trkpt lat="42.51659" lon="0.17529">
        <ele>834.8</ele>
        <time>2016-07-23T09:10:26Z</time>
      </trkpt>
      <trkpt lat="42.5166" lon="0.17535">
        <ele>835.4</ele>
        <time>2016-07-23T09:10:28Z</time>
      </trkpt>
      <trkpt lat="42.51662" lon="0.1754">
        <ele>836</ele>
        <time>2016-07-23T09:10:30Z</time>
      </trkpt>
      <trkpt lat="42.51664" lon="0.17545">
        <ele>836.5</ele>
        <time>2016-07-23T09:10:32Z</time>
      </trkpt>
      <trkpt lat="42.51667" lon="0.1755">
        <ele>836.8</ele>
        <time>2016-07-23T09:10:34Z</time>
      </trkpt>
      <trkpt lat="42.5167" lon="0.17553">
        <ele>837.2</ele>
        <time>2016-07-23T09:10:36Z</time>
      </trkpt>
      <trkpt lat="42.51673" lon="0.17557">
        <ele>837.5</ele>
        <time>2016-07-23T09:10:38Z</time>
      </trkpt>
      <trkpt lat="42.51676" lon="0.1756">
        <ele>837.8</ele>
        <time>2016-07-23T09:10:40Z</time>
      </trkpt>
      <trkpt lat="42.51679" lon="0.17564">
        <ele>838.1</ele>
        <time>2016-07-23T09:10:42Z</time>
      </trkpt>
      <trkpt lat="42.51682" lon="0.17569">
        <ele>838.5</ele>
        <time>2016-07-23T09:10:44Z</time>
      </trkpt>
      <trkpt lat="42.51684" lon="0.17573">
        <ele>839</ele>
        <time>2016-07-23T09:10:46Z</time>
      </trkpt>
      <trkpt lat="42.51687" lon="0.17578">
        <ele>839.4</ele>
        <time>2016-07-23T09:10:48Z</time>
      </trkpt>
      <trkpt lat="42.51689" lon="0.17582">
        <ele>839.8</ele>
        <time>2016-07-23T09:10:50Z</time>
      </trkpt>
      <trkpt lat="42.51691" lon="0.17587">
        <ele>840.3</ele>
        <time>2016-07-23T09:10:52Z</time>
      </trkpt>
      <trkpt lat="42.51691" lon="0.17592">
        <ele>840.9</ele>
        <time>2016-07-23T09:10:54Z</time>
      </trkpt>
      <trkpt lat="42.51692" lon="0.17598">
        <ele>841.5</ele>
        <time>2016-07-23T09:10:56Z</time>
      </trkpt>
      <trkpt lat="42.51691" lon="0.17603">
        <ele>842.1</ele>
        <time>2016-07-23T09:10:58Z</time>
      </trkpt>
      <trkpt lat="42.51688" lon="0.17608">
        <ele>842.6</ele>
        <time>2016-07-23T09:11:00Z</time>
      </trkpt>
      <trkpt lat="42.51685" lon="0.17612">
        <ele>843.1</ele>
        <time>2016-07-23T09:11:02Z</time>
      </trkpt>
      <trkpt lat="42.51681" lon="0.17614">
        <ele>843.5</ele>
        <time>2016-07-23T09:11:04Z</time>
      </trkpt>
      <trkpt lat="42.51676" lon="0.17615">
        <ele>843.7</ele>
        <time>2016-07-23T09:11:06Z</time>
      </trkpt>
      <trkpt lat="42.51673" lon="0.17615">
        <ele>843.7</ele>
        <time>2016-07-23T09:11:07Z</time>
      </trkpt>
      <trkpt lat="42.5167" lon="0.17614">
        <ele>843.7</ele>
        <time>2016-07-23T09:11:08Z</time>
      </trkpt>
      <trkpt lat="42.51668" lon="0.17613">
        <ele>843.6</ele>
        <time>2016-07-23T09:11:09Z</time>
      </trkpt>
      <trkpt lat="42.51665" lon="0.17611">
        <ele>843.5</ele>
        <time>2016-07-23T09:11:10Z</time>
      </trkpt>
      <trkpt lat="42.51663" lon="0.17608">
        <ele>843.2</ele>
        <time>2016-07-23T09:11:11Z</time>
      </trkpt>
      <trkpt lat="42.51661" lon="0.17605">
        <ele>843</ele>
        <time>2016-07-23T09:11:12Z</time>
      </trkpt>
      <trkpt lat="42.51659" lon="0.17603">
        <ele>842.8</ele>
        <time>2016-07-23T09:11:13Z</time>
      </trkpt>
      <trkpt lat="42.51656" lon="0.17601">
        <ele>842.6</ele>
        <time>2016-07-23T09:11:14Z</time>
      </trkpt>
      <trkpt lat="42.51654" lon="0.17599">
        <ele>842.5</ele>
        <time>2016-07-23T09:11:15Z</time>
      </trkpt>
      <trkpt lat="42.51649" lon="0.17595">
        <ele>842.2</ele>
        <time>2016-07-23T09:11:17Z</time>
      </trkpt>
      <trkpt lat="42.51646" lon="0.17594">
        <ele>842.1</ele>
        <time>2016-07-23T09:11:18Z</time>
      </trkpt>
      <trkpt lat="42.51644" lon="0.17593">
        <ele>842.1</ele>
        <time>2016-07-23T09:11:19Z</time>
      </trkpt>
      <trkpt lat="42.51641" lon="0.17592">
        <ele>842</ele>
        <time>2016-07-23T09:11:20Z</time>
      </trkpt>
      <trkpt lat="42.51638" lon="0.1759">
        <ele>841.9</ele>
        <time>2016-07-23T09:11:21Z</time>
      </trkpt>
      <trkpt lat="42.51635" lon="0.17589">
        <ele>841.9</ele>
        <time>2016-07-23T09:11:22Z</time>
      </trkpt>
      <trkpt lat="42.51633" lon="0.17588">
        <ele>841.9</ele>
        <time>2016-07-23T09:11:23Z</time>
      </trkpt>
      <trkpt lat="42.51628" lon="0.17587">
        <ele>841.8</ele>
        <time>2016-07-23T09:11:25Z</time>
      </trkpt>
      <trkpt lat="42.51623" lon="0.17587">
        <ele>841.8</ele>
        <time>2016-07-23T09:11:27Z</time>
      </trkpt>
      <trkpt lat="42.51619" lon="0.17588">
        <ele>841.9</ele>
        <time>2016-07-23T09:11:29Z</time>
      </trkpt>
      <trkpt lat="42.51615" lon="0.17591">
        <ele>842.1</ele>
        <time>2016-07-23T09:11:31Z</time>
      </trkpt>
      <trkpt lat="42.51611" lon="0.17594">
        <ele>842.5</ele>
        <time>2016-07-23T09:11:33Z</time>
      </trkpt>
      <trkpt lat="42.51609" lon="0.17599">
        <ele>843.1</ele>
        <time>2016-07-23T09:11:35Z</time>
      </trkpt>
      <trkpt lat="42.51608" lon="0.17606">
        <ele>844</ele>
        <time>2016-07-23T09:11:37Z</time>
      </trkpt>
      <trkpt lat="42.51609" lon="0.17612">
        <ele>844.9</ele>
        <time>2016-07-23T09:11:39Z</time>
      </trkpt>
      <trkpt lat="42.51611" lon="0.17618">
        <ele>845.6</ele>
        <time>2016-07-23T09:11:41Z</time>
      </trkpt>
      <trkpt lat="42.51613" lon="0.17623">
        <ele>846.2</ele>
        <time>2016-07-23T09:11:43Z</time>
      </trkpt>
      <trkpt lat="42.51615" lon="0.17627">
        <ele>846.6</ele>
        <time>2016-07-23T09:11:45Z</time>
      </trkpt>
      <trkpt lat="42.51618" lon="0.1763">
        <ele>846.9</ele>
        <time>2016-07-23T09:11:47Z</time>
      </trkpt>
      <trkpt lat="42.51622" lon="0.17633">
        <ele>847.3</ele>
        <time>2016-07-23T09:11:49Z</time>
      </trkpt>
      <trkpt lat="42.51625" lon="0.17636">
        <ele>847.6</ele>
        <time>2016-07-23T09:11:51Z</time>
      </trkpt>
      <trkpt lat="42.51628" lon="0.1764">
        <ele>848.1</ele>
        <time>2016-07-23T09:11:53Z</time>
      </trkpt>
      <trkpt lat="42.51631" lon="0.17644">
        <ele>848.5</ele>
        <time>2016-07-23T09:11:55Z</time>
      </trkpt>
      <trkpt lat="42.51633" lon="0.17648">
        <ele>849.1</ele>
        <time>2016-07-23T09:11:57Z</time>
      </trkpt>
      <trkpt lat="42.51635" lon="0.17652">
        <ele>849.6</ele>
        <time>2016-07-23T09:11:59Z</time>
      </trkpt>
      <trkpt lat="42.51638" lon="0.17656">
        <ele>850</ele>
        <time>2016-07-23T09:12:01Z</time>
      </trkpt>
      <trkpt lat="42.5164" lon="0.1766">
        <ele>850.5</ele>
        <time>2016-07-23T09:12:03Z</time>
      </trkpt>
      <trkpt lat="42.51642" lon="0.17664">
        <ele>850.9</ele>
        <time>2016-07-23T09:12:05Z</time>
      </trkpt>
      <trkpt lat="42.51644" lon="0.17668">
        <ele>851.4</ele>
        <time>2016-07-23T09:12:07Z</time>
      </trkpt>
      <trkpt lat="42.51645" lon="0.17673">
        <ele>851.9</ele>
        <time>2016-07-23T09:12:09Z</time>
      </trkpt>
      <trkpt lat="42.51646" lon="0.17677">
        <ele>852.5</ele>
        <time>2016-07-23T09:12:11Z</time>
      </trkpt>
      <trkpt lat="42.51648" lon="0.17681">
        <ele>853</ele>
        <time>2016-07-23T09:12:13Z</time>
      </trkpt>
      <trkpt lat="42.51649" lon="0.17686">
        <ele>853.5</ele>
        <time>2016-07-23T09:12:15Z</time>
      </trkpt>
      <trkpt lat="42.5165" lon="0.1769">
        <ele>854.1</ele>
        <time>2016-07-23T09:12:17Z</time>
      </trkpt>
      <trkpt lat="42.5165" lon="0.17695">
        <ele>854.7</ele>
        <time>2016-07-23T09:12:19Z</time>
      </trkpt>
      <trkpt lat="42.51651" lon="0.177">
        <ele>855.3</ele>
        <time>2016-07-23T09:12:21Z</time>
      </trkpt>
      <trkpt lat="42.51652" lon="0.17704">
        <ele>855.8</ele>
        <time>2016-07-23T09:12:23Z</time>
      </trkpt>
      <trkpt lat="42.51653" lon="0.17709">
        <ele>856.4</ele>
        <time>2016-07-23T09:12:25Z</time>
      </trkpt>
      <trkpt lat="42.51654" lon="0.17713">
        <ele>857.1</ele>
        <time>2016-07-23T09:12:27Z</time>
      </trkpt>
      <trkpt lat="42.51655" lon="0.17717">
        <ele>857.8</ele>
        <time>2016-07-23T09:12:29Z</time>
      </trkpt>
      <trkpt lat="42.51656" lon="0.17722">
        <ele>858.6</ele>
        <time>2016-07-23T09:12:31Z</time>
      </trkpt>
      <trkpt lat="42.51657" lon="0.17727">
        <ele>859.5</ele>
        <time>2016-07-23T09:12:33Z</time>
      </trkpt>
      <trkpt lat="42.51658" lon="0.17731">
        <ele>860.2</ele>
        <time>2016-07-23T09:12:35Z</time>
      </trkpt>
      <trkpt lat="42.51658" lon="0.17735">
        <ele>860.9</ele>
        <time>2016-07-23T09:12:37Z</time>
      </trkpt>
      <trkpt lat="42.51659" lon="0.17739">
        <ele>861.6</ele>
        <time>2016-07-23T09:12:39Z</time>
      </trkpt>
      <trkpt lat="42.5166" lon="0.17744">
        <ele>862.3</ele>
        <time>2016-07-23T09:12:41Z</time>
      </trkpt>
      <trkpt lat="42.51661" lon="0.17748">
        <ele>863.1</ele>
        <time>2016-07-23T09:12:43Z</time>
      </trkpt>
      <trkpt lat="42.5166" lon="0.17752">
        <ele>863.8</ele>
        <time>2016-07-23T09:12:45Z</time>
      </trkpt>
      <trkpt lat="42.51659" lon="0.17756">
        <ele>864.7</ele>
        <time>2016-07-23T09:12:47Z</time>
      </trkpt>
      <trkpt lat="42.51656" lon="0.1776">
        <ele>865.6</ele>
        <time>2016-07-23T09:12:49Z</time>
      </trkpt>
      <trkpt lat="42.51652" lon="0.17763">
        <ele>866.6</ele>
        <time>2016-07-23T09:12:51Z</time>
      </trkpt>
      <trkpt lat="42.51649" lon="0.17765">
        <ele>867.4</ele>
        <time>2016-07-23T09:12:53Z</time>
      </trkpt>
      <trkpt lat="42.51644" lon="0.17765">
        <ele>868.1</ele>
        <time>2016-07-23T09:12:55Z</time>
      </trkpt>
      <trkpt lat="42.5164" lon="0.17764">
        <ele>868.2</ele>
        <time>2016-07-23T09:12:57Z</time>
      </trkpt>
      <trkpt lat="42.51636" lon="0.17762">
        <ele>868.3</ele>
        <time>2016-07-23T09:12:59Z</time>
      </trkpt>
      <trkpt lat="42.51632" lon="0.1776">
        <ele>868.2</ele>
        <time>2016-07-23T09:13:01Z</time>
      </trkpt>
      <trkpt lat="42.51629" lon="0.17758">
        <ele>868.3</ele>
        <time>2016-07-23T09:13:03Z</time>
      </trkpt>
      <trkpt lat="42.51625" lon="0.17756">
        <ele>868.4</ele>
        <time>2016-07-23T09:13:05Z</time>
      </trkpt>
      <trkpt lat="42.51622" lon="0.17754">
        <ele>867.9</ele>
        <time>2016-07-23T09:13:07Z</time>
      </trkpt>
      <trkpt lat="42.51618" lon="0.17749">
        <ele>867.1</ele>
        <time>2016-07-23T09:13:09Z</time>
      </trkpt>
      <trkpt lat="42.51615" lon="0.17744">
        <ele>866.3</ele>
        <time>2016-07-23T09:13:11Z</time>
      </trkpt>
      <trkpt lat="42.51611" lon="0.17741">
        <ele>865.7</ele>
        <time>2016-07-23T09:13:13Z</time>
      </trkpt>
      <trkpt lat="42.51608" lon="0.17738">
        <ele>865.5</ele>
        <time>2016-07-23T09:13:15Z</time>
      </trkpt>
      <trkpt lat="42.51604" lon="0.17737">
        <ele>865.5</ele>
        <time>2016-07-23T09:13:17Z</time>
      </trkpt>
      <trkpt lat="42.51599" lon="0.17737">
        <ele>865.8</ele>
        <time>2016-07-23T09:13:19Z</time>
      </trkpt>
      <trkpt lat="42.51596" lon="0.17738">
        <ele>866.2</ele>
        <time>2016-07-23T09:13:21Z</time>
      </trkpt>
      <trkpt lat="42.51592" lon="0.17741">
        <ele>866.8</ele>
        <time>2016-07-23T09:13:23Z</time>
      </trkpt>
      <trkpt lat="42.51589" lon="0.17745">
        <ele>867.9</ele>
        <time>2016-07-23T09:13:25Z</time>
      </trkpt>
      <trkpt lat="42.51588" lon="0.17751">
        <ele>868.9</ele>
        <time>2016-07-23T09:13:27Z</time>
      </trkpt>
      <trkpt lat="42.51587" lon="0.17757">
        <ele>870.1</ele>
        <time>2016-07-23T09:13:29Z</time>
      </trkpt>
      <trkpt lat="42.51587" lon="0.17763">
        <ele>871.2</ele>
        <time>2016-07-23T09:13:31Z</time>
      </trkpt>
      <trkpt lat="42.51589" lon="0.17769">
        <ele>872.2</ele>
        <time>2016-07-23T09:13:33Z</time>
      </trkpt>
      <trkpt lat="42.51592" lon="0.17773">
        <ele>872.9</ele>
        <time>2016-07-23T09:13:35Z</time>
      </trkpt>
      <trkpt lat="42.51595" lon="0.17777">
        <ele>873.5</ele>
        <time>2016-07-23T09:13:37Z</time>
      </trkpt>
      <trkpt lat="42.51599" lon="0.1778">
        <ele>874</ele>
        <time>2016-07-23T09:13:39Z</time>
      </trkpt>
      <trkpt lat="42.51603" lon="0.17782">
        <ele>874.3</ele>
        <time>2016-07-23T09:13:41Z</time>
      </trkpt>
      <trkpt lat="42.51607" lon="0.17784">
        <ele>874.7</ele>
        <time>2016-07-23T09:13:43Z</time>
      </trkpt>
      <trkpt lat="42.51611" lon="0.17786">
        <ele>875</ele>
        <time>2016-07-23T09:13:45Z</time>
      </trkpt>
      <trkpt lat="42.51614" lon="0.17789">
        <ele>875.7</ele>
        <time>2016-07-23T09:13:47Z</time>
      </trkpt>
      <trkpt lat="42.51618" lon="0.17794">
        <ele>876.4</ele>
        <time>2016-07-23T09:13:49Z</time>
      </trkpt>
      <trkpt lat="42.51621" lon="0.17799">
        <ele>877.3</ele>
        <time>2016-07-23T09:13:51Z</time>
      </trkpt>
      <trkpt lat="42.51623" lon="0.17804">
        <ele>878.3</ele>
        <time>2016-07-23T09:13:53Z</time>
      </trkpt>
      <trkpt lat="42.51626" lon="0.1781">
        <ele>879.2</ele>
        <time>2016-07-23T09:13:55Z</time>
      </trkpt>
      <trkpt lat="42.51628" lon="0.17816">
        <ele>880</ele>
        <time>2016-07-23T09:13:57Z</time>
      </trkpt>
      <trkpt lat="42.51629" lon="0.17822">
        <ele>880.9</ele>
        <time>2016-07-23T09:13:59Z</time>
      </trkpt>
      <trkpt lat="42.51631" lon="0.17828">
        <ele>881.6</ele>
        <time>2016-07-23T09:14:01Z</time>
      </trkpt>
      <trkpt lat="42.51633" lon="0.17833">
        <ele>882.2</ele>
        <time>2016-07-23T09:14:03Z</time>
      </trkpt>
      <trkpt lat="42.51634" lon="0.17838">
        <ele>882.9</ele>
        <time>2016-07-23T09:14:05Z</time>
      </trkpt>
      <trkpt lat="42.51637" lon="0.17844">
        <ele>883.5</ele>
        <time>2016-07-23T09:14:07Z</time>
      </trkpt>
      <trkpt lat="42.51638" lon="0.17848">
        <ele>884</ele>
        <time>2016-07-23T09:14:09Z</time>
      </trkpt>
      <trkpt lat="42.51641" lon="0.17852">
        <ele>884.4</ele>
        <time>2016-07-23T09:14:11Z</time>
      </trkpt>
      <trkpt lat="42.51643" lon="0.17857">
        <ele>884.8</ele>
        <time>2016-07-23T09:14:13Z</time>
      </trkpt>
      <trkpt lat="42.51645" lon="0.17861">
        <ele>885.3</ele>
        <time>2016-07-23T09:14:15Z</time>
      </trkpt>
      <trkpt lat="42.51646" lon="0.17865">
        <ele>885.7</ele>
        <time>2016-07-23T09:14:17Z</time>
      </trkpt>
      <trkpt lat="42.51648" lon="0.17869">
        <ele>886</ele>
        <time>2016-07-23T09:14:19Z</time>
      </trkpt>
      <trkpt lat="42.51649" lon="0.17873">
        <ele>886.5</ele>
        <time>2016-07-23T09:14:21Z</time>
      </trkpt>
      <trkpt lat="42.51651" lon="0.17877">
        <ele>887.1</ele>
        <time>2016-07-23T09:14:23Z</time>
      </trkpt>
      <trkpt lat="42.51652" lon="0.17882">
        <ele>887.7</ele>
        <time>2016-07-23T09:14:25Z</time>
      </trkpt>
      <trkpt lat="42.51652" lon="0.17887">
        <ele>888.5</ele>
        <time>2016-07-23T09:14:27Z</time>
      </trkpt>
      <trkpt lat="42.51652" lon="0.17891">
        <ele>889.2</ele>
        <time>2016-07-23T09:14:29Z</time>
      </trkpt>
      <trkpt lat="42.51653" lon="0.17896">
        <ele>889.8</ele>
        <time>2016-07-23T09:14:31Z</time>
      </trkpt>
      <trkpt lat="42.51654" lon="0.17901">
        <ele>890.6</ele>
        <time>2016-07-23T09:14:33Z</time>
      </trkpt>
      <trkpt lat="42.51654" lon="0.17907">
        <ele>891.5</ele>
        <time>2016-07-23T09:14:35Z</time>
      </trkpt>
      <trkpt lat="42.51653" lon="0.17913">
        <ele>892.7</ele>
        <time>2016-07-23T09:14:37Z</time>
      </trkpt>
      <trkpt lat="42.51652" lon="0.17919">
        <ele>893.8</ele>
        <time>2016-07-23T09:14:39Z</time>
      </trkpt>
      <trkpt lat="42.51651" lon="0.17924">
        <ele>894.9</ele>
        <time>2016-07-23T09:14:41Z</time>
      </trkpt>
      <trkpt lat="42.5165" lon="0.1793">
        <ele>896</ele>
        <time>2016-07-23T09:14:43Z</time>
      </trkpt>
      <trkpt lat="42.51649" lon="0.17935">
        <ele>897.1</ele>
        <time>2016-07-23T09:14:45Z</time>
      </trkpt>
      <trkpt lat="42.51648" lon="0.1794">
        <ele>898</ele>
        <time>2016-07-23T09:14:47Z</time>
      </trkpt>
      <trkpt lat="42.51648" lon="0.17944">
        <ele>899</ele>
        <time>2016-07-23T09:14:49Z</time>
      </trkpt>
      <trkpt lat="42.51647" lon="0.17949">
        <ele>899.9</ele>
        <time>2016-07-23T09:14:51Z</time>
      </trkpt>
      <trkpt lat="42.51646" lon="0.17952">
        <ele>900.6</ele>
        <time>2016-07-23T09:14:53Z</time>
      </trkpt>
      <trkpt lat="42.51645" lon="0.17956">
        <ele>901.5</ele>
        <time>2016-07-23T09:14:55Z</time>
      </trkpt>
      <trkpt lat="42.51645" lon="0.17961">
        <ele>902.4</ele>
        <time>2016-07-23T09:14:57Z</time>
      </trkpt>
      <trkpt lat="42.51645" lon="0.17966">
        <ele>903.2</ele>
        <time>2016-07-23T09:14:59Z</time>
      </trkpt>
      <trkpt lat="42.51646" lon="0.17972">
        <ele>903.9</ele>
        <time>2016-07-23T09:15:01Z</time>
      </trkpt>
      <trkpt lat="42.51648" lon="0.17976">
        <ele>904.2</ele>
        <time>2016-07-23T09:15:03Z</time>
      </trkpt>
      <trkpt lat="42.51652" lon="0.17979">
        <ele>904</ele>
        <time>2016-07-23T09:15:05Z</time>
      </trkpt>
      <trkpt lat="42.51657" lon="0.17981">
        <ele>903.3</ele>
        <time>2016-07-23T09:15:07Z</time>
      </trkpt>
      <trkpt lat="42.51662" lon="0.1798">
        <ele>902.3</ele>
        <time>2016-07-23T09:15:09Z</time>
      </trkpt>
      <trkpt lat="42.51666" lon="0.17978">
        <ele>901.2</ele>
        <time>2016-07-23T09:15:11Z</time>
      </trkpt>
      <trkpt lat="42.51669" lon="0.17974">
        <ele>899.9</ele>
        <time>2016-07-23T09:15:13Z</time>
      </trkpt>
      <trkpt lat="42.51672" lon="0.1797">
        <ele>898.6</ele>
        <time>2016-07-23T09:15:15Z</time>
      </trkpt>
      <trkpt lat="42.51675" lon="0.17967">
        <ele>897.3</ele>
        <time>2016-07-23T09:15:17Z</time>
      </trkpt>
      <trkpt lat="42.51679" lon="0.17965">
        <ele>896.2</ele>
        <time>2016-07-23T09:15:19Z</time>
      </trkpt>
      <trkpt lat="42.51683" lon="0.17964">
        <ele>895.4</ele>
        <time>2016-07-23T09:15:21Z</time>
      </trkpt>
      <trkpt lat="42.51687" lon="0.17965">
        <ele>894.7</ele>
        <time>2016-07-23T09:15:23Z</time>
      </trkpt>
      <trkpt lat="42.51691" lon="0.17967">
        <ele>894.3</ele>
        <time>2016-07-23T09:15:25Z</time>
      </trkpt>
      <trkpt lat="42.51696" lon="0.17968">
        <ele>893.5</ele>
        <time>2016-07-23T09:15:27Z</time>
      </trkpt>
      <trkpt lat="42.51701" lon="0.17966">
        <ele>892.2</ele>
        <time>2016-07-23T09:15:29Z</time>
      </trkpt>
      <trkpt lat="42.51705" lon="0.17963">
        <ele>890.7</ele>
        <time>2016-07-23T09:15:31Z</time>
      </trkpt>
      <trkpt lat="42.51708" lon="0.17958">
        <ele>889.2</ele>
        <time>2016-07-23T09:15:33Z</time>
      </trkpt>
      <trkpt lat="42.5171" lon="0.17954">
        <ele>888.4</ele>
        <time>2016-07-23T09:15:35Z</time>
      </trkpt>
      <trkpt lat="42.51712" lon="0.17949">
        <ele>887.9</ele>
        <time>2016-07-23T09:15:37Z</time>
      </trkpt>
      <trkpt lat="42.51714" lon="0.17944">
        <ele>887.3</ele>
        <time>2016-07-23T09:15:39Z</time>
      </trkpt>
      <trkpt lat="42.51717" lon="0.1794">
        <ele>886.9</ele>
        <time>2016-07-23T09:15:41Z</time>
      </trkpt>
      <trkpt lat="42.51721" lon="0.17936">
        <ele>886.6</ele>
        <time>2016-07-23T09:15:43Z</time>
      </trkpt>
      <trkpt lat="42.51725" lon="0.17935">
        <ele>886.7</ele>
        <time>2016-07-23T09:15:45Z</time>
      </trkpt>
      <trkpt lat="42.5173" lon="0.17936">
        <ele>887.2</ele>
        <time>2016-07-23T09:15:47Z</time>
      </trkpt>
      <trkpt lat="42.51733" lon="0.17937">
        <ele>887.5</ele>
        <time>2016-07-23T09:15:48Z</time>
      </trkpt>
      <trkpt lat="42.51736" lon="0.17938">
        <ele>887.9</ele>
        <time>2016-07-23T09:15:49Z</time>
      </trkpt>
      <trkpt lat="42.51739" lon="0.17939">
        <ele>888.3</ele>
        <time>2016-07-23T09:15:50Z</time>
      </trkpt>
      <trkpt lat="42.51742" lon="0.1794">
        <ele>888.6</ele>
        <time>2016-07-23T09:15:51Z</time>
      </trkpt>
      <trkpt lat="42.51745" lon="0.17941">
        <ele>888.9</ele>
        <time>2016-07-23T09:15:52Z</time>
      </trkpt>
      <trkpt lat="42.51748" lon="0.17941">
        <ele>889.1</ele>
        <time>2016-07-23T09:15:53Z</time>
      </trkpt>
      <trkpt lat="42.5175" lon="0.1794">
        <ele>889.2</ele>
        <time>2016-07-23T09:15:54Z</time>
      </trkpt>
      <trkpt lat="42.51756" lon="0.17939">
        <ele>889.3</ele>
        <time>2016-07-23T09:15:56Z</time>
      </trkpt>
      <trkpt lat="42.5176" lon="0.17936">
        <ele>889.2</ele>
        <time>2016-07-23T09:15:58Z</time>
      </trkpt>
      <trkpt lat="42.51765" lon="0.17933">
        <ele>889</ele>
        <time>2016-07-23T09:16:00Z</time>
      </trkpt>
      <trkpt lat="42.51769" lon="0.17929">
        <ele>888.6</ele>
        <time>2016-07-23T09:16:02Z</time>
      </trkpt>
      <trkpt lat="42.51774" lon="0.17926">
        <ele>888.5</ele>
        <time>2016-07-23T09:16:04Z</time>
      </trkpt>
      <trkpt lat="42.51776" lon="0.17925">
        <ele>888.5</ele>
        <time>2016-07-23T09:16:05Z</time>
      </trkpt>
      <trkpt lat="42.51779" lon="0.17924">
        <ele>888.4</ele>
        <time>2016-07-23T09:16:06Z</time>
      </trkpt>
      <trkpt lat="42.51781" lon="0.17922">
        <ele>888.3</ele>
        <time>2016-07-23T09:16:07Z</time>
      </trkpt>
      <trkpt lat="42.51784" lon="0.1792">
        <ele>888.1</ele>
        <time>2016-07-23T09:16:08Z</time>
      </trkpt>
      <trkpt lat="42.51786" lon="0.17918">
        <ele>887.9</ele>
        <time>2016-07-23T09:16:09Z</time>
      </trkpt>
      <trkpt lat="42.51789" lon="0.17916">
        <ele>887.7</ele>
        <time>2016-07-23T09:16:10Z</time>
      </trkpt>
      <trkpt lat="42.51791" lon="0.17914">
        <ele>887.5</ele>
        <time>2016-07-23T09:16:11Z</time>
      </trkpt>
      <trkpt lat="42.51793" lon="0.17912">
        <ele>887.5</ele>
        <time>2016-07-23T09:16:12Z</time>
      </trkpt>
      <trkpt lat="42.51795" lon="0.1791">
        <ele>887.6</ele>
        <time>2016-07-23T09:16:13Z</time>
      </trkpt>
      <trkpt lat="42.518" lon="0.17906">
        <ele>888</ele>
        <time>2016-07-23T09:16:15Z</time>
      </trkpt>
      <trkpt lat="42.51802" lon="0.17905">
        <ele>888.4</ele>
        <time>2016-07-23T09:16:16Z</time>
      </trkpt>
      <trkpt lat="42.51808" lon="0.17903">
        <ele>889.3</ele>
        <time>2016-07-23T09:16:18Z</time>
      </trkpt>
      <trkpt lat="42.51813" lon="0.17904">
        <ele>890.7</ele>
        <time>2016-07-23T09:16:20Z</time>
      </trkpt>
      <trkpt lat="42.51817" lon="0.17908">
        <ele>892</ele>
        <time>2016-07-23T09:16:22Z</time>
      </trkpt>
      <trkpt lat="42.5182" lon="0.17914">
        <ele>893.3</ele>
        <time>2016-07-23T09:16:24Z</time>
      </trkpt>
      <trkpt lat="42.51821" lon="0.17917">
        <ele>894</ele>
        <time>2016-07-23T09:16:25Z</time>
      </trkpt>
      <trkpt lat="42.51822" lon="0.1792">
        <ele>894.7</ele>
        <time>2016-07-23T09:16:26Z</time>
      </trkpt>
      <trkpt lat="42.51824" lon="0.17924">
        <ele>895.4</ele>
        <time>2016-07-23T09:16:27Z</time>
      </trkpt>
      <trkpt lat="42.51826" lon="0.17929">
        <ele>896.3</ele>
        <time>2016-07-23T09:16:28Z</time>
      </trkpt>
      <trkpt lat="42.51829" lon="0.17933">
        <ele>897.3</ele>
        <time>2016-07-23T09:16:29Z</time>
      </trkpt>
      <trkpt lat="42.51832" lon="0.17938">
        <ele>898.3</ele>
        <time>2016-07-23T09:16:30Z</time>
      </trkpt>
      <trkpt lat="42.51835" lon="0.17944">
        <ele>899.4</ele>
        <time>2016-07-23T09:16:31Z</time>
      </trkpt>
      <trkpt lat="42.51839" lon="0.17949">
        <ele>900.4</ele>
        <time>2016-07-23T09:16:32Z</time>
      </trkpt>
      <trkpt lat="42.51842" lon="0.17954">
        <ele>901.3</ele>
        <time>2016-07-23T09:16:33Z</time>
      </trkpt>
      <trkpt lat="42.51846" lon="0.17959">
        <ele>902.2</ele>
        <time>2016-07-23T09:16:34Z</time>
      </trkpt>
      <trkpt lat="42.51849" lon="0.17963">
        <ele>903.1</ele>
        <time>2016-07-23T09:16:35Z</time>
      </trkpt>
      <trkpt lat="42.51852" lon="0.17968">
        <ele>904</ele>
        <time>2016-07-23T09:16:36Z</time>
      </trkpt>
      <trkpt lat="42.51854" lon="0.17974">
        <ele>904.8</ele>
        <time>2016-07-23T09:16:37Z</time>
      </trkpt>
      <trkpt lat="42.51855" lon="0.1798">
        <ele>905.5</ele>
        <time>2016-07-23T09:16:38Z</time>
      </trkpt>
      <trkpt lat="42.51855" lon="0.17986">
        <ele>906.1</ele>
        <time>2016-07-23T09:16:39Z</time>
      </trkpt>
      <trkpt lat="42.51854" lon="0.17992">
        <ele>906.6</ele>
        <time>2016-07-23T09:16:40Z</time>
      </trkpt>
      <trkpt lat="42.51853" lon="0.17998">
        <ele>907.1</ele>
        <time>2016-07-23T09:16:41Z</time>
      </trkpt>
      <trkpt lat="42.51852" lon="0.18004">
        <ele>907.7</ele>
        <time>2016-07-23T09:16:42Z</time>
      </trkpt>
      <trkpt lat="42.51852" lon="0.18009">
        <ele>908.3</ele>
        <time>2016-07-23T09:16:43Z</time>
      </trkpt>
      <trkpt lat="42.51854" lon="0.18013">
        <ele>908.6</ele>
        <time>2016-07-23T09:16:44Z</time>
      </trkpt>
      <trkpt lat="42.51857" lon="0.18015">
        <ele>908.7</ele>
        <time>2016-07-23T09:16:45Z</time>
      </trkpt>
      <trkpt lat="42.51861" lon="0.18014">
        <ele>908.5</ele>
        <time>2016-07-23T09:16:46Z</time>
      </trkpt>
      <trkpt lat="42.51866" lon="0.18012">
        <ele>908.2</ele>
        <time>2016-07-23T09:16:47Z</time>
      </trkpt>
      <trkpt lat="42.5187" lon="0.1801">
        <ele>908</ele>
        <time>2016-07-23T09:16:48Z</time>
      </trkpt>
      <trkpt lat="42.51874" lon="0.18009">
        <ele>907.8</ele>
        <time>2016-07-23T09:16:49Z</time>
      </trkpt>
      <trkpt lat="42.51878" lon="0.18008">
        <ele>907.2</ele>
        <time>2016-07-23T09:16:50Z</time>
      </trkpt>
      <trkpt lat="42.51881" lon="0.18009">
        <ele>906.6</ele>
        <time>2016-07-23T09:16:51Z</time>
      </trkpt>
      <trkpt lat="42.51883" lon="0.18011">
        <ele>906.2</ele>
        <time>2016-07-23T09:16:52Z</time>
      </trkpt>
      <trkpt lat="42.51885" lon="0.18018">
        <ele>906</ele>
        <time>2016-07-23T09:16:54Z</time>
      </trkpt>
      <trkpt lat="42.51885" lon="0.18022">
        <ele>906.3</ele>
        <time>2016-07-23T09:16:55Z</time>
      </trkpt>
      <trkpt lat="42.51884" lon="0.18026">
        <ele>906.7</ele>
        <time>2016-07-23T09:16:56Z</time>
      </trkpt>
      <trkpt lat="42.51883" lon="0.1803">
        <ele>907.1</ele>
        <time>2016-07-23T09:16:57Z</time>
      </trkpt>
      <trkpt lat="42.51882" lon="0.18034">
        <ele>907.4</ele>
        <time>2016-07-23T09:16:58Z</time>
      </trkpt>
      <trkpt lat="42.51882" lon="0.18038">
        <ele>907.7</ele>
        <time>2016-07-23T09:16:59Z</time>
      </trkpt>
      <trkpt lat="42.51881" lon="0.18042">
        <ele>908</ele>
        <time>2016-07-23T09:17:00Z</time>
      </trkpt>
      <trkpt lat="42.51881" lon="0.18046">
        <ele>908.6</ele>
        <time>2016-07-23T09:17:01Z</time>
      </trkpt>
      <trkpt lat="42.5188" lon="0.18049">
        <ele>909.2</ele>
        <time>2016-07-23T09:17:02Z</time>
      </trkpt>
      <trkpt lat="42.51878" lon="0.18056">
        <ele>910.4</ele>
        <time>2016-07-23T09:17:04Z</time>
      </trkpt>
      <trkpt lat="42.51877" lon="0.18063">
        <ele>911.5</ele>
        <time>2016-07-23T09:17:06Z</time>
      </trkpt>
      <trkpt lat="42.51876" lon="0.18069">
        <ele>912.5</ele>
        <time>2016-07-23T09:17:08Z</time>
      </trkpt>
      <trkpt lat="42.51875" lon="0.18076">
        <ele>913.5</ele>
        <time>2016-07-23T09:17:10Z</time>
      </trkpt>
      <trkpt lat="42.51875" lon="0.18083">
        <ele>914.3</ele>
        <time>2016-07-23T09:17:12Z</time>
      </trkpt>
      <trkpt lat="42.51877" lon="0.18089">
        <ele>914.9</ele>
        <time>2016-07-23T09:17:14Z</time>
      </trkpt>
      <trkpt lat="42.51881" lon="0.18093">
        <ele>914.8</ele>
        <time>2016-07-23T09:17:16Z</time>
      </trkpt>
      <trkpt lat="42.51884" lon="0.18094">
        <ele>914.6</ele>
        <time>2016-07-23T09:17:17Z</time>
      </trkpt>
      <trkpt lat="42.51887" lon="0.18095">
        <ele>914.3</ele>
        <time>2016-07-23T09:17:18Z</time>
      </trkpt>
      <trkpt lat="42.51889" lon="0.18095">
        <ele>914</ele>
        <time>2016-07-23T09:17:19Z</time>
      </trkpt>
      <trkpt lat="42.51892" lon="0.18095">
        <ele>913.6</ele>
        <time>2016-07-23T09:17:20Z</time>
      </trkpt>
      <trkpt lat="42.51895" lon="0.18095">
        <ele>913.2</ele>
        <time>2016-07-23T09:17:21Z</time>
      </trkpt>
      <trkpt lat="42.519" lon="0.18095">
        <ele>912.4</ele>
        <time>2016-07-23T09:17:23Z</time>
      </trkpt>
      <trkpt lat="42.51903" lon="0.18096">
        <ele>912.1</ele>
        <time>2016-07-23T09:17:24Z</time>
      </trkpt>
      <trkpt lat="42.51908" lon="0.18097">
        <ele>911.5</ele>
        <time>2016-07-23T09:17:26Z</time>
      </trkpt>
      <trkpt lat="42.51913" lon="0.18099">
        <ele>911.1</ele>
        <time>2016-07-23T09:17:28Z</time>
      </trkpt>
      <trkpt lat="42.51918" lon="0.181">
        <ele>910.6</ele>
        <time>2016-07-23T09:17:30Z</time>
      </trkpt>
      <trkpt lat="42.51923" lon="0.181">
        <ele>909.8</ele>
        <time>2016-07-23T09:17:32Z</time>
      </trkpt>
      <trkpt lat="42.51927" lon="0.18096">
        <ele>908.7</ele>
        <time>2016-07-23T09:17:34Z</time>
      </trkpt>
      <trkpt lat="42.51928" lon="0.1809">
        <ele>907.5</ele>
        <time>2016-07-23T09:17:36Z</time>
      </trkpt>
      <trkpt lat="42.51929" lon="0.18083">
        <ele>906.4</ele>
        <time>2016-07-23T09:17:38Z</time>
      </trkpt>
      <trkpt lat="42.51931" lon="0.18077">
        <ele>905.2</ele>
        <time>2016-07-23T09:17:40Z</time>
      </trkpt>
      <trkpt lat="42.51932" lon="0.18072">
        <ele>904.1</ele>
        <time>2016-07-23T09:17:42Z</time>
      </trkpt>
      <trkpt lat="42.51935" lon="0.18067">
        <ele>903</ele>
        <time>2016-07-23T09:17:44Z</time>
      </trkpt>
      <trkpt lat="42.51938" lon="0.18064">
        <ele>902</ele>
        <time>2016-07-23T09:17:46Z</time>
      </trkpt>
      <trkpt lat="42.51941" lon="0.1806">
        <ele>900.8</ele>
        <time>2016-07-23T09:17:48Z</time>
      </trkpt>
      <trkpt lat="42.51945" lon="0.18058">
        <ele>899.8</ele>
        <time>2016-07-23T09:17:50Z</time>
      </trkpt>
      <trkpt lat="42.51949" lon="0.18057">
        <ele>899.1</ele>
        <time>2016-07-23T09:17:52Z</time>
      </trkpt>
      <trkpt lat="42.51953" lon="0.18058">
        <ele>898.5</ele>
        <time>2016-07-23T09:17:54Z</time>
      </trkpt>
      <trkpt lat="42.51957" lon="0.1806">
        <ele>898.2</ele>
        <time>2016-07-23T09:17:56Z</time>
      </trkpt>
      <trkpt lat="42.51961" lon="0.18063">
        <ele>898.7</ele>
        <time>2016-07-23T09:17:58Z</time>
      </trkpt>
      <trkpt lat="42.51964" lon="0.18068">
        <ele>899.5</ele>
        <time>2016-07-23T09:18:00Z</time>
      </trkpt>
      <trkpt lat="42.51966" lon="0.18072">
        <ele>900.4</ele>
        <time>2016-07-23T09:18:02Z</time>
      </trkpt>
      <trkpt lat="42.51968" lon="0.18078">
        <ele>901.4</ele>
        <time>2016-07-23T09:18:04Z</time>
      </trkpt>
      <trkpt lat="42.51969" lon="0.18084">
        <ele>902.5</ele>
        <time>2016-07-23T09:18:06Z</time>
      </trkpt>
      <trkpt lat="42.5197" lon="0.1809">
        <ele>903.5</ele>
        <time>2016-07-23T09:18:08Z</time>
      </trkpt>
      <trkpt lat="42.51971" lon="0.18096">
        <ele>904.6</ele>
        <time>2016-07-23T09:18:10Z</time>
      </trkpt>
      <trkpt lat="42.51974" lon="0.18101">
        <ele>905.6</ele>
        <time>2016-07-23T09:18:12Z</time>
      </trkpt>
      <trkpt lat="42.51977" lon="0.18106">
        <ele>906.5</ele>
        <time>2016-07-23T09:18:14Z</time>
      </trkpt>
      <trkpt lat="42.51979" lon="0.1811">
        <ele>907.4</ele>
        <time>2016-07-23T09:18:16Z</time>
      </trkpt>
      <trkpt lat="42.51983" lon="0.18114">
        <ele>908.3</ele>
        <time>2016-07-23T09:18:18Z</time>
      </trkpt>
      <trkpt lat="42.51986" lon="0.18119">
        <ele>909.2</ele>
        <time>2016-07-23T09:18:20Z</time>
      </trkpt>
      <trkpt lat="42.51989" lon="0.18122">
        <ele>910</ele>
        <time>2016-07-23T09:18:22Z</time>
      </trkpt>
      <trkpt lat="42.51992" lon="0.18125">
        <ele>910.6</ele>
        <time>2016-07-23T09:18:24Z</time>
      </trkpt>
      <trkpt lat="42.51995" lon="0.18128">
        <ele>911.3</ele>
        <time>2016-07-23T09:18:26Z</time>
      </trkpt>
      <trkpt lat="42.51998" lon="0.18131">
        <ele>912</ele>
        <time>2016-07-23T09:18:28Z</time>
      </trkpt>
      <trkpt lat="42.52001" lon="0.18134">
        <ele>912.8</ele>
        <time>2016-07-23T09:18:30Z</time>
      </trkpt>
      <trkpt lat="42.52005" lon="0.18138">
        <ele>913.7</ele>
        <time>2016-07-23T09:18:32Z</time>
      </trkpt>
      <trkpt lat="42.52009" lon="0.18141">
        <ele>914.5</ele>
        <time>2016-07-23T09:18:34Z</time>
      </trkpt>
      <trkpt lat="42.52013" lon="0.18144">
        <ele>915.2</ele>
        <time>2016-07-23T09:18:36Z</time>
      </trkpt>
      <trkpt lat="42.52017" lon="0.18147">
        <ele>915.9</ele>
        <time>2016-07-23T09:18:38Z</time>
      </trkpt>
      <trkpt lat="42.52021" lon="0.18151">
        <ele>916.6</ele>
        <time>2016-07-23T09:18:40Z</time>
      </trkpt>
      <trkpt lat="42.52025" lon="0.18154">
        <ele>917.4</ele>
        <time>2016-07-23T09:18:42Z</time>
      </trkpt>
      <trkpt lat="42.52029" lon="0.18159">
        <ele>918.3</ele>
        <time>2016-07-23T09:18:44Z</time>
      </trkpt>
      <trkpt lat="42.52031" lon="0.18163">
        <ele>919.1</ele>
        <time>2016-07-23T09:18:46Z</time>
      </trkpt>
      <trkpt lat="42.52034" lon="0.18168">
        <ele>920</ele>
        <time>2016-07-23T09:18:48Z</time>
      </trkpt>
      <trkpt lat="42.52037" lon="0.18174">
        <ele>921.1</ele>
        <time>2016-07-23T09:18:50Z</time>
      </trkpt>
      <trkpt lat="42.52038" lon="0.18181">
        <ele>922.3</ele>
        <time>2016-07-23T09:18:52Z</time>
      </trkpt>
      <trkpt lat="42.52039" lon="0.18184">
        <ele>922.9</ele>
        <time>2016-07-23T09:18:53Z</time>
      </trkpt>
      <trkpt lat="42.5204" lon="0.18188">
        <ele>923.6</ele>
        <time>2016-07-23T09:18:54Z</time>
      </trkpt>
      <trkpt lat="42.52042" lon="0.18193">
        <ele>924.3</ele>
        <time>2016-07-23T09:18:55Z</time>
      </trkpt>
      <trkpt lat="42.52043" lon="0.18197">
        <ele>924.9</ele>
        <time>2016-07-23T09:18:56Z</time>
      </trkpt>
      <trkpt lat="42.52045" lon="0.18202">
        <ele>925.3</ele>
        <time>2016-07-23T09:18:57Z</time>
      </trkpt>
      <trkpt lat="42.52047" lon="0.18207">
        <ele>925.7</ele>
        <time>2016-07-23T09:18:58Z</time>
      </trkpt>
      <trkpt lat="42.5205" lon="0.18211">
        <ele>925.8</ele>
        <time>2016-07-23T09:18:59Z</time>
      </trkpt>
      <trkpt lat="42.52054" lon="0.18213">
        <ele>925.6</ele>
        <time>2016-07-23T09:19:00Z</time>
      </trkpt>
      <trkpt lat="42.52058" lon="0.18214">
        <ele>925</ele>
        <time>2016-07-23T09:19:01Z</time>
      </trkpt>
      <trkpt lat="42.52062" lon="0.18213">
        <ele>924.1</ele>
        <time>2016-07-23T09:19:02Z</time>
      </trkpt>
      <trkpt lat="42.52065" lon="0.18212">
        <ele>923.1</ele>
        <time>2016-07-23T09:19:03Z</time>
      </trkpt>
      <trkpt lat="42.52068" lon="0.1821">
        <ele>922.2</ele>
        <time>2016-07-23T09:19:04Z</time>
      </trkpt>
      <trkpt lat="42.52071" lon="0.18209">
        <ele>921.4</ele>
        <time>2016-07-23T09:19:05Z</time>
      </trkpt>
      <trkpt lat="42.52076" lon="0.18208">
        <ele>920.4</ele>
        <time>2016-07-23T09:19:07Z</time>
      </trkpt>
      <trkpt lat="42.52081" lon="0.1821">
        <ele>919.8</ele>
        <time>2016-07-23T09:19:09Z</time>
      </trkpt>
      <trkpt lat="42.52084" lon="0.18212">
        <ele>919.8</ele>
        <time>2016-07-23T09:19:10Z</time>
      </trkpt>
      <trkpt lat="42.52086" lon="0.18215">
        <ele>920.1</ele>
        <time>2016-07-23T09:19:11Z</time>
      </trkpt>
      <trkpt lat="42.52087" lon="0.18219">
        <ele>920.6</ele>
        <time>2016-07-23T09:19:12Z</time>
      </trkpt>
      <trkpt lat="42.52089" lon="0.18223">
        <ele>921.2</ele>
        <time>2016-07-23T09:19:13Z</time>
      </trkpt>
      <trkpt lat="42.5209" lon="0.18228">
        <ele>922</ele>
        <time>2016-07-23T09:19:14Z</time>
      </trkpt>
      <trkpt lat="42.52092" lon="0.18233">
        <ele>922.7</ele>
        <time>2016-07-23T09:19:15Z</time>
      </trkpt>
      <trkpt lat="42.52093" lon="0.18238">
        <ele>923.4</ele>
        <time>2016-07-23T09:19:16Z</time>
      </trkpt>
      <trkpt lat="42.52095" lon="0.18243">
        <ele>924.2</ele>
        <time>2016-07-23T09:19:17Z</time>
      </trkpt>
      <trkpt lat="42.52096" lon="0.18249">
        <ele>925.1</ele>
        <time>2016-07-23T09:19:18Z</time>
      </trkpt>
      <trkpt lat="42.52098" lon="0.18254">
        <ele>925.8</ele>
        <time>2016-07-23T09:19:19Z</time>
      </trkpt>
      <trkpt lat="42.521" lon="0.18258">
        <ele>926.4</ele>
        <time>2016-07-23T09:19:20Z</time>
      </trkpt>
      <trkpt lat="42.52102" lon="0.18262">
        <ele>926.6</ele>
        <time>2016-07-23T09:19:21Z</time>
      </trkpt>
      <trkpt lat="42.52105" lon="0.18264">
        <ele>926.5</ele>
        <time>2016-07-23T09:19:22Z</time>
      </trkpt>
      <trkpt lat="42.52109" lon="0.18265">
        <ele>926</ele>
        <time>2016-07-23T09:19:23Z</time>
      </trkpt>
      <trkpt lat="42.52113" lon="0.18265">
        <ele>925.2</ele>
        <time>2016-07-23T09:19:24Z</time>
      </trkpt>
      <trkpt lat="42.52116" lon="0.18265">
        <ele>924.3</ele>
        <time>2016-07-23T09:19:25Z</time>
      </trkpt>
      <trkpt lat="42.5212" lon="0.18264">
        <ele>923.4</ele>
        <time>2016-07-23T09:19:26Z</time>
      </trkpt>
      <trkpt lat="42.52123" lon="0.18263">
        <ele>922.5</ele>
        <time>2016-07-23T09:19:27Z</time>
      </trkpt>
      <trkpt lat="42.52126" lon="0.18262">
        <ele>921.8</ele>
        <time>2016-07-23T09:19:28Z</time>
      </trkpt>
      <trkpt lat="42.52129" lon="0.1826">
        <ele>921.3</ele>
        <time>2016-07-23T09:19:29Z</time>
      </trkpt>
      <trkpt lat="42.52132" lon="0.1826">
        <ele>921</ele>
        <time>2016-07-23T09:19:30Z</time>
      </trkpt>
      <trkpt lat="42.52135" lon="0.18259">
        <ele>920.7</ele>
        <time>2016-07-23T09:19:31Z</time>
      </trkpt>
      <trkpt lat="42.52138" lon="0.1826">
        <ele>920.6</ele>
        <time>2016-07-23T09:19:32Z</time>
      </trkpt>
      <trkpt lat="42.52141" lon="0.18261">
        <ele>920.6</ele>
        <time>2016-07-23T09:19:33Z</time>
      </trkpt>
      <trkpt lat="42.52144" lon="0.18262">
        <ele>920.7</ele>
        <time>2016-07-23T09:19:34Z</time>
      </trkpt>
      <trkpt lat="42.52146" lon="0.18264">
        <ele>920.9</ele>
        <time>2016-07-23T09:19:35Z</time>
      </trkpt>
      <trkpt lat="42.52149" lon="0.18266">
        <ele>921</ele>
        <time>2016-07-23T09:19:36Z</time>
      </trkpt>
      <trkpt lat="42.52151" lon="0.18267">
        <ele>921.2</ele>
        <time>2016-07-23T09:19:37Z</time>
      </trkpt>
      <trkpt lat="42.52156" lon="0.1827">
        <ele>921.5</ele>
        <time>2016-07-23T09:19:39Z</time>
      </trkpt>
      <trkpt lat="42.52158" lon="0.18272">
        <ele>921.7</ele>
        <time>2016-07-23T09:19:40Z</time>
      </trkpt>
      <trkpt lat="42.52163" lon="0.18276">
        <ele>922</ele>
        <time>2016-07-23T09:19:42Z</time>
      </trkpt>
      <trkpt lat="42.52167" lon="0.1828">
        <ele>922.3</ele>
        <time>2016-07-23T09:19:44Z</time>
      </trkpt>
      <trkpt lat="42.52172" lon="0.18283">
        <ele>922.6</ele>
        <time>2016-07-23T09:19:46Z</time>
      </trkpt>
      <trkpt lat="42.52176" lon="0.18286">
        <ele>922.7</ele>
        <time>2016-07-23T09:19:48Z</time>
      </trkpt>
      <trkpt lat="42.52181" lon="0.18287">
        <ele>922.5</ele>
        <time>2016-07-23T09:19:50Z</time>
      </trkpt>
      <trkpt lat="42.52185" lon="0.18288">
        <ele>922.3</ele>
        <time>2016-07-23T09:19:52Z</time>
      </trkpt>
      <trkpt lat="42.5219" lon="0.18289">
        <ele>922.1</ele>
        <time>2016-07-23T09:19:54Z</time>
      </trkpt>
      <trkpt lat="42.52194" lon="0.18289">
        <ele>921.8</ele>
        <time>2016-07-23T09:19:56Z</time>
      </trkpt>
      <trkpt lat="42.52199" lon="0.18291">
        <ele>921.6</ele>
        <time>2016-07-23T09:19:58Z</time>
      </trkpt>
      <trkpt lat="42.52204" lon="0.18291">
        <ele>921.4</ele>
        <time>2016-07-23T09:20:00Z</time>
      </trkpt>
      <trkpt lat="42.52208" lon="0.18292">
        <ele>921</ele>
        <time>2016-07-23T09:20:02Z</time>
      </trkpt>
      <trkpt lat="42.52213" lon="0.18292">
        <ele>921.6</ele>
        <time>2016-07-23T09:20:04Z</time>
      </trkpt>
      <trkpt lat="42.52218" lon="0.18292">
        <ele>921.9</ele>
        <time>2016-07-23T09:20:06Z</time>
      </trkpt>
      <trkpt lat="42.52223" lon="0.1829">
        <ele>922.2</ele>
        <time>2016-07-23T09:20:08Z</time>
      </trkpt>
      <trkpt lat="42.52228" lon="0.18291">
        <ele>922.8</ele>
        <time>2016-07-23T09:20:10Z</time>
      </trkpt>
      <trkpt lat="42.52233" lon="0.18293">
        <ele>923.7</ele>
        <time>2016-07-23T09:20:12Z</time>
      </trkpt>
      <trkpt lat="42.52235" lon="0.18295">
        <ele>924.2</ele>
        <time>2016-07-23T09:20:13Z</time>
      </trkpt>
      <trkpt lat="42.52238" lon="0.18296">
        <ele>924.7</ele>
        <time>2016-07-23T09:20:14Z</time>
      </trkpt>
      <trkpt lat="42.52241" lon="0.18297">
        <ele>925.3</ele>
        <time>2016-07-23T09:20:15Z</time>
      </trkpt>
      <trkpt lat="42.52243" lon="0.18299">
        <ele>925.8</ele>
        <time>2016-07-23T09:20:16Z</time>
      </trkpt>
      <trkpt lat="42.52246" lon="0.183">
        <ele>926.2</ele>
        <time>2016-07-23T09:20:17Z</time>
      </trkpt>
      <trkpt lat="42.52248" lon="0.18301">
        <ele>926.7</ele>
        <time>2016-07-23T09:20:18Z</time>
      </trkpt>
      <trkpt lat="42.52251" lon="0.18302">
        <ele>927</ele>
        <time>2016-07-23T09:20:19Z</time>
      </trkpt>
      <trkpt lat="42.52254" lon="0.18302">
        <ele>927.3</ele>
        <time>2016-07-23T09:20:20Z</time>
      </trkpt>
      <trkpt lat="42.52257" lon="0.18302">
        <ele>927.5</ele>
        <time>2016-07-23T09:20:21Z</time>
      </trkpt>
      <trkpt lat="42.52262" lon="0.18301">
        <ele>927.6</ele>
        <time>2016-07-23T09:20:23Z</time>
      </trkpt>
      <trkpt lat="42.52267" lon="0.18298">
        <ele>927.6</ele>
        <time>2016-07-23T09:20:25Z</time>
      </trkpt>
      <trkpt lat="42.52271" lon="0.18296">
        <ele>927.6</ele>
        <time>2016-07-23T09:20:27Z</time>
      </trkpt>
      <trkpt lat="42.52275" lon="0.18292">
        <ele>927.4</ele>
        <time>2016-07-23T09:20:29Z</time>
      </trkpt>
      <trkpt lat="42.52279" lon="0.18287">
        <ele>927.7</ele>
        <time>2016-07-23T09:20:31Z</time>
      </trkpt>
      <trkpt lat="42.52282" lon="0.18285">
        <ele>927.9</ele>
        <time>2016-07-23T09:20:32Z</time>
      </trkpt>
      <trkpt lat="42.52284" lon="0.18283">
        <ele>928.2</ele>
        <time>2016-07-23T09:20:33Z</time>
      </trkpt>
      <trkpt lat="42.52287" lon="0.18281">
        <ele>928.5</ele>
        <time>2016-07-23T09:20:34Z</time>
      </trkpt>
      <trkpt lat="42.5229" lon="0.18278">
        <ele>928.8</ele>
        <time>2016-07-23T09:20:35Z</time>
      </trkpt>
      <trkpt lat="42.52293" lon="0.18276">
        <ele>929</ele>
        <time>2016-07-23T09:20:36Z</time>
      </trkpt>
      <trkpt lat="42.52297" lon="0.18273">
        <ele>929</ele>
        <time>2016-07-23T09:20:37Z</time>
      </trkpt>
      <trkpt lat="42.523" lon="0.18271">
        <ele>929.1</ele>
        <time>2016-07-23T09:20:38Z</time>
      </trkpt>
      <trkpt lat="42.52304" lon="0.18268">
        <ele>929.1</ele>
        <time>2016-07-23T09:20:39Z</time>
      </trkpt>
      <trkpt lat="42.52308" lon="0.18265">
        <ele>929.2</ele>
        <time>2016-07-23T09:20:40Z</time>
      </trkpt>
      <trkpt lat="42.52311" lon="0.18262">
        <ele>929.3</ele>
        <time>2016-07-23T09:20:41Z</time>
      </trkpt>
      <trkpt lat="42.52315" lon="0.1826">
        <ele>929.3</ele>
        <time>2016-07-23T09:20:42Z</time>
      </trkpt>
      <trkpt lat="42.52319" lon="0.18257">
        <ele>929.4</ele>
        <time>2016-07-23T09:20:43Z</time>
      </trkpt>
      <trkpt lat="42.52323" lon="0.18255">
        <ele>929.5</ele>
        <time>2016-07-23T09:20:44Z</time>
      </trkpt>
      <trkpt lat="42.52327" lon="0.18253">
        <ele>929.6</ele>
        <time>2016-07-23T09:20:45Z</time>
      </trkpt>
      <trkpt lat="42.52332" lon="0.18251">
        <ele>929.7</ele>
        <time>2016-07-23T09:20:46Z</time>
      </trkpt>
      <trkpt lat="42.52337" lon="0.18248">
        <ele>929.9</ele>
        <time>2016-07-23T09:20:47Z</time>
      </trkpt>
      <trkpt lat="42.52342" lon="0.18245">
        <ele>930</ele>
        <time>2016-07-23T09:20:48Z</time>
      </trkpt>
      <trkpt lat="42.52347" lon="0.18242">
        <ele>930.2</ele>
        <time>2016-07-23T09:20:49Z</time>
      </trkpt>
      <trkpt lat="42.52353" lon="0.1824">
        <ele>930.4</ele>
        <time>2016-07-23T09:20:50Z</time>
      </trkpt>
      <trkpt lat="42.52358" lon="0.18238">
        <ele>930.5</ele>
        <time>2016-07-23T09:20:51Z</time>
      </trkpt>
      <trkpt lat="42.52362" lon="0.18238">
        <ele>930.6</ele>
        <time>2016-07-23T09:20:52Z</time>
      </trkpt>
      <trkpt lat="42.52367" lon="0.18239">
        <ele>930.7</ele>
        <time>2016-07-23T09:20:53Z</time>
      </trkpt>
      <trkpt lat="42.5237" lon="0.18241">
        <ele>930.7</ele>
        <time>2016-07-23T09:20:54Z</time>
      </trkpt>
      <trkpt lat="42.52373" lon="0.18245">
        <ele>930.6</ele>
        <time>2016-07-23T09:20:55Z</time>
      </trkpt>
      <trkpt lat="42.52375" lon="0.18251">
        <ele>930.5</ele>
        <time>2016-07-23T09:20:56Z</time>
      </trkpt>
      <trkpt lat="42.52376" lon="0.18259">
        <ele>930.2</ele>
        <time>2016-07-23T09:20:57Z</time>
      </trkpt>
      <trkpt lat="42.52375" lon="0.18267">
        <ele>929.9</ele>
        <time>2016-07-23T09:20:58Z</time>
      </trkpt>
      <trkpt lat="42.52372" lon="0.18274">
        <ele>929.6</ele>
        <time>2016-07-23T09:20:59Z</time>
      </trkpt>
      <trkpt lat="42.52369" lon="0.18281">
        <ele>929.4</ele>
        <time>2016-07-23T09:21:00Z</time>
      </trkpt>
      <trkpt lat="42.52365" lon="0.18288">
        <ele>929.1</ele>
        <time>2016-07-23T09:21:01Z</time>
      </trkpt>
      <trkpt lat="42.52361" lon="0.18295">
        <ele>928.8</ele>
        <time>2016-07-23T09:21:02Z</time>
      </trkpt>
      <trkpt lat="42.52356" lon="0.18301">
        <ele>928.6</ele>
        <time>2016-07-23T09:21:03Z</time>
      </trkpt>
      <trkpt lat="42.52351" lon="0.18307">
        <ele>928.5</ele>
        <time>2016-07-23T09:21:04Z</time>
      </trkpt>
      <trkpt lat="42.52345" lon="0.18313">
        <ele>928.6</ele>
        <time>2016-07-23T09:21:05Z</time>
      </trkpt>
      <trkpt lat="42.52339" lon="0.18319">
        <ele>928.8</ele>
        <time>2016-07-23T09:21:06Z</time>
      </trkpt>
      <trkpt lat="42.52332" lon="0.18326">
        <ele>929.3</ele>
        <time>2016-07-23T09:21:07Z</time>
      </trkpt>
      <trkpt lat="42.52328" lon="0.18336">
        <ele>929.8</ele>
        <time>2016-07-23T09:21:08Z</time>
      </trkpt>
      <trkpt lat="42.52325" lon="0.18345">
        <ele>930.3</ele>
        <time>2016-07-23T09:21:09Z</time>
      </trkpt>
      <trkpt lat="42.52321" lon="0.18355">
        <ele>931.1</ele>
        <time>2016-07-23T09:21:10Z</time>
      </trkpt>
      <trkpt lat="42.52319" lon="0.18365">
        <ele>931.7</ele>
        <time>2016-07-23T09:21:11Z</time>
      </trkpt>
      <trkpt lat="42.52318" lon="0.18375">
        <ele>932.3</ele>
        <time>2016-07-23T09:21:12Z</time>
      </trkpt>
      <trkpt lat="42.52317" lon="0.18385">
        <ele>932.9</ele>
        <time>2016-07-23T09:21:13Z</time>
      </trkpt>
      <trkpt lat="42.52317" lon="0.18395">
        <ele>933.5</ele>
        <time>2016-07-23T09:21:14Z</time>
      </trkpt>
      <trkpt lat="42.52317" lon="0.18405">
        <ele>933.9</ele>
        <time>2016-07-23T09:21:15Z</time>
      </trkpt>
      <trkpt lat="42.52319" lon="0.18414">
        <ele>934.1</ele>
        <time>2016-07-23T09:21:16Z</time>
      </trkpt>
      <trkpt lat="42.52321" lon="0.18422">
        <ele>934</ele>
        <time>2016-07-23T09:21:17Z</time>
      </trkpt>
      <trkpt lat="42.52323" lon="0.1843">
        <ele>933.7</ele>
        <time>2016-07-23T09:21:18Z</time>
      </trkpt>
      <trkpt lat="42.52323" lon="0.18438">
        <ele>933.8</ele>
        <time>2016-07-23T09:21:19Z</time>
      </trkpt>
      <trkpt lat="42.52323" lon="0.18445">
        <ele>934.1</ele>
        <time>2016-07-23T09:21:20Z</time>
      </trkpt>
      <trkpt lat="42.52323" lon="0.18451">
        <ele>934.5</ele>
        <time>2016-07-23T09:21:21Z</time>
      </trkpt>
      <trkpt lat="42.52322" lon="0.18457">
        <ele>934.9</ele>
        <time>2016-07-23T09:21:22Z</time>
      </trkpt>
      <trkpt lat="42.52321" lon="0.18462">
        <ele>935.6</ele>
        <time>2016-07-23T09:21:23Z</time>
      </trkpt>
      <trkpt lat="42.52321" lon="0.18467">
        <ele>936.2</ele>
        <time>2016-07-23T09:21:24Z</time>
      </trkpt>
      <trkpt lat="42.5232" lon="0.18472">
        <ele>936.8</ele>
        <time>2016-07-23T09:21:25Z</time>
      </trkpt>
      <trkpt lat="42.52319" lon="0.18477">
        <ele>937.3</ele>
        <time>2016-07-23T09:21:26Z</time>
      </trkpt>
      <trkpt lat="42.52319" lon="0.18482">
        <ele>937.6</ele>
        <time>2016-07-23T09:21:27Z</time>
      </trkpt>
      <trkpt lat="42.52319" lon="0.18487">
        <ele>937.9</ele>
        <time>2016-07-23T09:21:28Z</time>
      </trkpt>
      <trkpt lat="42.5232" lon="0.18491">
        <ele>938.2</ele>
        <time>2016-07-23T09:21:29Z</time>
      </trkpt>
      <trkpt lat="42.52319" lon="0.18495">
        <ele>938.6</ele>
        <time>2016-07-23T09:21:30Z</time>
      </trkpt>
      <trkpt lat="42.52319" lon="0.185">
        <ele>939.1</ele>
        <time>2016-07-23T09:21:31Z</time>
      </trkpt>
      <trkpt lat="42.52319" lon="0.18504">
        <ele>939.3</ele>
        <time>2016-07-23T09:21:32Z</time>
      </trkpt>
      <trkpt lat="42.52319" lon="0.18508">
        <ele>939.7</ele>
        <time>2016-07-23T09:21:33Z</time>
      </trkpt>
      <trkpt lat="42.52319" lon="0.18513">
        <ele>940</ele>
        <time>2016-07-23T09:21:34Z</time>
      </trkpt>
      <trkpt lat="42.52319" lon="0.18517">
        <ele>940.3</ele>
        <time>2016-07-23T09:21:35Z</time>
      </trkpt>
      <trkpt lat="42.52319" lon="0.18521">
        <ele>940.6</ele>
        <time>2016-07-23T09:21:36Z</time>
      </trkpt>
      <trkpt lat="42.52319" lon="0.18526">
        <ele>940.9</ele>
        <time>2016-07-23T09:21:37Z</time>
      </trkpt>
      <trkpt lat="42.52319" lon="0.1853">
        <ele>941.1</ele>
        <time>2016-07-23T09:21:38Z</time>
      </trkpt>
      <trkpt lat="42.52319" lon="0.18534">
        <ele>941.3</ele>
        <time>2016-07-23T09:21:39Z</time>
      </trkpt>
      <trkpt lat="42.52319" lon="0.18541">
        <ele>941.6</ele>
        <time>2016-07-23T09:21:41Z</time>
      </trkpt>
      <trkpt lat="42.5232" lon="0.18548">
        <ele>942.3</ele>
        <time>2016-07-23T09:21:43Z</time>
      </trkpt>
      <trkpt lat="42.52319" lon="0.18552">
        <ele>942.7</ele>
        <time>2016-07-23T09:21:44Z</time>
      </trkpt>
      <trkpt lat="42.52319" lon="0.18559">
        <ele>943.4</ele>
        <time>2016-07-23T09:21:46Z</time>
      </trkpt>
      <trkpt lat="42.52321" lon="0.18565">
        <ele>943.6</ele>
        <time>2016-07-23T09:21:48Z</time>
      </trkpt>
      <trkpt lat="42.52324" lon="0.18572">
        <ele>943.3</ele>
        <time>2016-07-23T09:21:50Z</time>
      </trkpt>
      <trkpt lat="42.52325" lon="0.18575">
        <ele>943.1</ele>
        <time>2016-07-23T09:21:51Z</time>
      </trkpt>
      <trkpt lat="42.52327" lon="0.18578">
        <ele>942.8</ele>
        <time>2016-07-23T09:21:52Z</time>
      </trkpt>
      <trkpt lat="42.5233" lon="0.18583">
        <ele>942.2</ele>
        <time>2016-07-23T09:21:54Z</time>
      </trkpt>
      <trkpt lat="42.52334" lon="0.18587">
        <ele>941.3</ele>
        <time>2016-07-23T09:21:56Z</time>
      </trkpt>
      <trkpt lat="42.52339" lon="0.18591">
        <ele>940.3</ele>
        <time>2016-07-23T09:21:58Z</time>
      </trkpt>
      <trkpt lat="42.52343" lon="0.18594">
        <ele>939.1</ele>
        <time>2016-07-23T09:22:00Z</time>
      </trkpt>
      <trkpt lat="42.52348" lon="0.18595">
        <ele>937.6</ele>
        <time>2016-07-23T09:22:02Z</time>
      </trkpt>
      <trkpt lat="42.52353" lon="0.18594">
        <ele>936</ele>
        <time>2016-07-23T09:22:04Z</time>
      </trkpt>
      <trkpt lat="42.52357" lon="0.18592">
        <ele>934.3</ele>
        <time>2016-07-23T09:22:06Z</time>
      </trkpt>
      <trkpt lat="42.52361" lon="0.18589">
        <ele>932.7</ele>
        <time>2016-07-23T09:22:08Z</time>
      </trkpt>
      <trkpt lat="42.52365" lon="0.18588">
        <ele>931.2</ele>
        <time>2016-07-23T09:22:10Z</time>
      </trkpt>
      <trkpt lat="42.5237" lon="0.18587">
        <ele>929.6</ele>
        <time>2016-07-23T09:22:12Z</time>
      </trkpt>
      <trkpt lat="42.52375" lon="0.18588">
        <ele>928.1</ele>
        <time>2016-07-23T09:22:14Z</time>
      </trkpt>
      <trkpt lat="42.52379" lon="0.18589">
        <ele>928.4</ele>
        <time>2016-07-23T09:22:16Z</time>
      </trkpt>
      <trkpt lat="42.52384" lon="0.1859">
        <ele>928.8</ele>
        <time>2016-07-23T09:22:18Z</time>
      </trkpt>
      <trkpt lat="42.52389" lon="0.18592">
        <ele>929.3</ele>
        <time>2016-07-23T09:22:20Z</time>
      </trkpt>
      <trkpt lat="42.52392" lon="0.18593">
        <ele>929.5</ele>
        <time>2016-07-23T09:22:21Z</time>
      </trkpt>
      <trkpt lat="42.52395" lon="0.18594">
        <ele>929.8</ele>
        <time>2016-07-23T09:22:22Z</time>
      </trkpt>
      <trkpt lat="42.52397" lon="0.18594">
        <ele>930</ele>
        <time>2016-07-23T09:22:23Z</time>
      </trkpt>
      <trkpt lat="42.524" lon="0.18595">
        <ele>930.2</ele>
        <time>2016-07-23T09:22:24Z</time>
      </trkpt>
      <trkpt lat="42.52403" lon="0.18596">
        <ele>930.5</ele>
        <time>2016-07-23T09:22:25Z</time>
      </trkpt>
      <trkpt lat="42.52406" lon="0.18597">
        <ele>930.7</ele>
        <time>2016-07-23T09:22:26Z</time>
      </trkpt>
      <trkpt lat="42.52409" lon="0.18597">
        <ele>931</ele>
        <time>2016-07-23T09:22:27Z</time>
      </trkpt>
      <trkpt lat="42.52411" lon="0.18598">
        <ele>931.2</ele>
        <time>2016-07-23T09:22:28Z</time>
      </trkpt>
      <trkpt lat="42.52414" lon="0.18598">
        <ele>931.5</ele>
        <time>2016-07-23T09:22:29Z</time>
      </trkpt>
      <trkpt lat="42.52417" lon="0.18599">
        <ele>931.7</ele>
        <time>2016-07-23T09:22:30Z</time>
      </trkpt>
      <trkpt lat="42.5242" lon="0.18598">
        <ele>931.9</ele>
        <time>2016-07-23T09:22:31Z</time>
      </trkpt>
      <trkpt lat="42.52423" lon="0.18598">
        <ele>932</ele>
        <time>2016-07-23T09:22:32Z</time>
      </trkpt>
      <trkpt lat="42.52426" lon="0.18597">
        <ele>932</ele>
        <time>2016-07-23T09:22:33Z</time>
      </trkpt>
      <trkpt lat="42.52431" lon="0.18594">
        <ele>931.9</ele>
        <time>2016-07-23T09:22:35Z</time>
      </trkpt>
      <trkpt lat="42.52435" lon="0.18592">
        <ele>932</ele>
        <time>2016-07-23T09:22:37Z</time>
      </trkpt>
      <trkpt lat="42.5244" lon="0.1859">
        <ele>932</ele>
        <time>2016-07-23T09:22:39Z</time>
      </trkpt>
      <trkpt lat="42.52445" lon="0.18588">
        <ele>932</ele>
        <time>2016-07-23T09:22:41Z</time>
      </trkpt>
      <trkpt lat="42.52451" lon="0.18587">
        <ele>932.1</ele>
        <time>2016-07-23T09:22:43Z</time>
      </trkpt>
      <trkpt lat="42.52456" lon="0.18586">
        <ele>932.2</ele>
        <time>2016-07-23T09:22:45Z</time>
      </trkpt>
      <trkpt lat="42.5246" lon="0.18584">
        <ele>932.1</ele>
        <time>2016-07-23T09:22:47Z</time>
      </trkpt>
      <trkpt lat="42.52465" lon="0.18583">
        <ele>931.7</ele>
        <time>2016-07-23T09:22:49Z</time>
      </trkpt>
      <trkpt lat="42.5247" lon="0.18581">
        <ele>931.3</ele>
        <time>2016-07-23T09:22:51Z</time>
      </trkpt>
      <trkpt lat="42.52476" lon="0.18579">
        <ele>930.9</ele>
        <time>2016-07-23T09:22:53Z</time>
      </trkpt>
      <trkpt lat="42.52478" lon="0.18579">
        <ele>930.8</ele>
        <time>2016-07-23T09:22:54Z</time>
      </trkpt>
      <trkpt lat="42.52481" lon="0.18579">
        <ele>930.6</ele>
        <time>2016-07-23T09:22:55Z</time>
      </trkpt>
      <trkpt lat="42.52484" lon="0.18578">
        <ele>930.5</ele>
        <time>2016-07-23T09:22:56Z</time>
      </trkpt>
      <trkpt lat="42.52489" lon="0.18579">
        <ele>930.4</ele>
        <time>2016-07-23T09:22:58Z</time>
      </trkpt>
      <trkpt lat="42.52494" lon="0.1858">
        <ele>930.5</ele>
        <time>2016-07-23T09:23:00Z</time>
      </trkpt>
      <trkpt lat="42.52497" lon="0.18581">
        <ele>930.6</ele>
        <time>2016-07-23T09:23:01Z</time>
      </trkpt>
      <trkpt lat="42.525" lon="0.18582">
        <ele>930.8</ele>
        <time>2016-07-23T09:23:02Z</time>
      </trkpt>
      <trkpt lat="42.52502" lon="0.18584">
        <ele>931.1</ele>
        <time>2016-07-23T09:23:03Z</time>
      </trkpt>
      <trkpt lat="42.52505" lon="0.18586">
        <ele>931.5</ele>
        <time>2016-07-23T09:23:04Z</time>
      </trkpt>
      <trkpt lat="42.52507" lon="0.18589">
        <ele>932</ele>
        <time>2016-07-23T09:23:05Z</time>
      </trkpt>
      <trkpt lat="42.52508" lon="0.18593">
        <ele>932.7</ele>
        <time>2016-07-23T09:23:06Z</time>
      </trkpt>
      <trkpt lat="42.52509" lon="0.18596">
        <ele>933.3</ele>
        <time>2016-07-23T09:23:07Z</time>
      </trkpt>
      <trkpt lat="42.52511" lon="0.18599">
        <ele>934</ele>
        <time>2016-07-23T09:23:08Z</time>
      </trkpt>
      <trkpt lat="42.52512" lon="0.18603">
        <ele>934.7</ele>
        <time>2016-07-23T09:23:09Z</time>
      </trkpt>
      <trkpt lat="42.52515" lon="0.18608">
        <ele>935.9</ele>
        <time>2016-07-23T09:23:11Z</time>
      </trkpt>
      <trkpt lat="42.52519" lon="0.18613">
        <ele>936.8</ele>
        <time>2016-07-23T09:23:13Z</time>
      </trkpt>
      <trkpt lat="42.52521" lon="0.18614">
        <ele>937.2</ele>
        <time>2016-07-23T09:23:14Z</time>
      </trkpt>
      <trkpt lat="42.52525" lon="0.18615">
        <ele>937.3</ele>
        <time>2016-07-23T09:23:15Z</time>
      </trkpt>
      <trkpt lat="42.52528" lon="0.18614">
        <ele>937.2</ele>
        <time>2016-07-23T09:23:16Z</time>
      </trkpt>
      <trkpt lat="42.52532" lon="0.18612">
        <ele>936.8</ele>
        <time>2016-07-23T09:23:17Z</time>
      </trkpt>
      <trkpt lat="42.52535" lon="0.1861">
        <ele>936.3</ele>
        <time>2016-07-23T09:23:18Z</time>
      </trkpt>
      <trkpt lat="42.52538" lon="0.18607">
        <ele>935.8</ele>
        <time>2016-07-23T09:23:19Z</time>
      </trkpt>
      <trkpt lat="42.5254" lon="0.18605">
        <ele>935.2</ele>
        <time>2016-07-23T09:23:20Z</time>
      </trkpt>
      <trkpt lat="42.52543" lon="0.18602">
        <ele>934.5</ele>
        <time>2016-07-23T09:23:21Z</time>
      </trkpt>
      <trkpt lat="42.52545" lon="0.18599">
        <ele>934.1</ele>
        <time>2016-07-23T09:23:22Z</time>
      </trkpt>
      <trkpt lat="42.52547" lon="0.18596">
        <ele>933.7</ele>
        <time>2016-07-23T09:23:23Z</time>
      </trkpt>
      <trkpt lat="42.52548" lon="0.18593">
        <ele>933.2</ele>
        <time>2016-07-23T09:23:24Z</time>
      </trkpt>
      <trkpt lat="42.52551" lon="0.18587">
        <ele>932.3</ele>
        <time>2016-07-23T09:23:26Z</time>
      </trkpt>
      <trkpt lat="42.52554" lon="0.18582">
        <ele>931.3</ele>
        <time>2016-07-23T09:23:28Z</time>
      </trkpt>
      <trkpt lat="42.52556" lon="0.18576">
        <ele>930.2</ele>
        <time>2016-07-23T09:23:30Z</time>
      </trkpt>
      <trkpt lat="42.52559" lon="0.1857">
        <ele>929.1</ele>
        <time>2016-07-23T09:23:32Z</time>
      </trkpt>
      <trkpt lat="42.52562" lon="0.18565">
        <ele>928.5</ele>
        <time>2016-07-23T09:23:34Z</time>
      </trkpt>
      <trkpt lat="42.52565" lon="0.18562">
        <ele>928.2</ele>
        <time>2016-07-23T09:23:36Z</time>
      </trkpt>
      <trkpt lat="42.52569" lon="0.1856">
        <ele>928.2</ele>
        <time>2016-07-23T09:23:38Z</time>
      </trkpt>
      <trkpt lat="42.52573" lon="0.18559">
        <ele>928.5</ele>
        <time>2016-07-23T09:23:40Z</time>
      </trkpt>
      <trkpt lat="42.52577" lon="0.18557">
        <ele>928.7</ele>
        <time>2016-07-23T09:23:42Z</time>
      </trkpt>
      <trkpt lat="42.52582" lon="0.18556">
        <ele>929</ele>
        <time>2016-07-23T09:23:44Z</time>
      </trkpt>
      <trkpt lat="42.52586" lon="0.18557">
        <ele>929.6</ele>
        <time>2016-07-23T09:23:46Z</time>
      </trkpt>
      <trkpt lat="42.5259" lon="0.18558">
        <ele>930.5</ele>
        <time>2016-07-23T09:23:48Z</time>
      </trkpt>
      <trkpt lat="42.52595" lon="0.18559">
        <ele>931.5</ele>
        <time>2016-07-23T09:23:50Z</time>
      </trkpt>
      <trkpt lat="42.52599" lon="0.18561">
        <ele>932.4</ele>
        <time>2016-07-23T09:23:52Z</time>
      </trkpt>
      <trkpt lat="42.52603" lon="0.18561">
        <ele>933.1</ele>
        <time>2016-07-23T09:23:54Z</time>
      </trkpt>
      <trkpt lat="42.52607" lon="0.1856">
        <ele>933.5</ele>
        <time>2016-07-23T09:23:56Z</time>
      </trkpt>
      <trkpt lat="42.52611" lon="0.18558">
        <ele>933.5</ele>
        <time>2016-07-23T09:23:58Z</time>
      </trkpt>
      <trkpt lat="42.52615" lon="0.18555">
        <ele>933.1</ele>
        <time>2016-07-23T09:24:00Z</time>
      </trkpt>
      <trkpt lat="42.52619" lon="0.18552">
        <ele>932.9</ele>
        <time>2016-07-23T09:24:02Z</time>
      </trkpt>
      <trkpt lat="42.52623" lon="0.1855">
        <ele>933</ele>
        <time>2016-07-23T09:24:04Z</time>
      </trkpt>
      <trkpt lat="42.52627" lon="0.18549">
        <ele>933.3</ele>
        <time>2016-07-23T09:24:06Z</time>
      </trkpt>
      <trkpt lat="42.52632" lon="0.18548">
        <ele>933.8</ele>
        <time>2016-07-23T09:24:08Z</time>
      </trkpt>
      <trkpt lat="42.52636" lon="0.18547">
        <ele>934.3</ele>
        <time>2016-07-23T09:24:10Z</time>
      </trkpt>
      <trkpt lat="42.5264" lon="0.18547">
        <ele>935</ele>
        <time>2016-07-23T09:24:12Z</time>
      </trkpt>
      <trkpt lat="42.52644" lon="0.18547">
        <ele>935.7</ele>
        <time>2016-07-23T09:24:14Z</time>
      </trkpt>
      <trkpt lat="42.52648" lon="0.18547">
        <ele>936.5</ele>
        <time>2016-07-23T09:24:16Z</time>
      </trkpt>
      <trkpt lat="42.52652" lon="0.18547">
        <ele>937.5</ele>
        <time>2016-07-23T09:24:18Z</time>
      </trkpt>
      <trkpt lat="42.52657" lon="0.18548">
        <ele>938.5</ele>
        <time>2016-07-23T09:24:20Z</time>
      </trkpt>
      <trkpt lat="42.52661" lon="0.18549">
        <ele>939.6</ele>
        <time>2016-07-23T09:24:22Z</time>
      </trkpt>
      <trkpt lat="42.52666" lon="0.18551">
        <ele>940.9</ele>
        <time>2016-07-23T09:24:24Z</time>
      </trkpt>
      <trkpt lat="42.5267" lon="0.18554">
        <ele>942.7</ele>
        <time>2016-07-23T09:24:26Z</time>
      </trkpt>
      <trkpt lat="42.52673" lon="0.18559">
        <ele>944.5</ele>
        <time>2016-07-23T09:24:28Z</time>
      </trkpt>
      <trkpt lat="42.52676" lon="0.18563">
        <ele>946.4</ele>
        <time>2016-07-23T09:24:30Z</time>
      </trkpt>
      <trkpt lat="42.52679" lon="0.18568">
        <ele>948.4</ele>
        <time>2016-07-23T09:24:32Z</time>
      </trkpt>
      <trkpt lat="42.52683" lon="0.18571">
        <ele>950.1</ele>
        <time>2016-07-23T09:24:34Z</time>
      </trkpt>
      <trkpt lat="42.52688" lon="0.18573">
        <ele>951.6</ele>
        <time>2016-07-23T09:24:36Z</time>
      </trkpt>
      <trkpt lat="42.52692" lon="0.18573">
        <ele>952.5</ele>
        <time>2016-07-23T09:24:38Z</time>
      </trkpt>
      <trkpt lat="42.52696" lon="0.18572">
        <ele>952.9</ele>
        <time>2016-07-23T09:24:40Z</time>
      </trkpt>
      <trkpt lat="42.52699" lon="0.18568">
        <ele>952.5</ele>
        <time>2016-07-23T09:24:42Z</time>
      </trkpt>
      <trkpt lat="42.52702" lon="0.18564">
        <ele>951.5</ele>
        <time>2016-07-23T09:24:44Z</time>
      </trkpt>
      <trkpt lat="42.52703" lon="0.18559">
        <ele>950.3</ele>
        <time>2016-07-23T09:24:46Z</time>
      </trkpt>
      <trkpt lat="42.52705" lon="0.18553">
        <ele>948.9</ele>
        <time>2016-07-23T09:24:48Z</time>
      </trkpt>
      <trkpt lat="42.52707" lon="0.18547">
        <ele>947.5</ele>
        <time>2016-07-23T09:24:50Z</time>
      </trkpt>
      <trkpt lat="42.52709" lon="0.18542">
        <ele>946.3</ele>
        <time>2016-07-23T09:24:52Z</time>
      </trkpt>
      <trkpt lat="42.52712" lon="0.18537">
        <ele>946</ele>
        <time>2016-07-23T09:24:54Z</time>
      </trkpt>
      <trkpt lat="42.52714" lon="0.18532">
        <ele>945.8</ele>
        <time>2016-07-23T09:24:56Z</time>
      </trkpt>
      <trkpt lat="42.52717" lon="0.18528">
        <ele>945.8</ele>
        <time>2016-07-23T09:24:58Z</time>
      </trkpt>
      <trkpt lat="42.52721" lon="0.18525">
        <ele>946</ele>
        <time>2016-07-23T09:25:00Z</time>
      </trkpt>
      <trkpt lat="42.52725" lon="0.18522">
        <ele>946.4</ele>
        <time>2016-07-23T09:25:02Z</time>
      </trkpt>
      <trkpt lat="42.52729" lon="0.18521">
        <ele>946.9</ele>
        <time>2016-07-23T09:25:04Z</time>
      </trkpt>
      <trkpt lat="42.52733" lon="0.18518">
        <ele>947.3</ele>
        <time>2016-07-23T09:25:06Z</time>
      </trkpt>
      <trkpt lat="42.52736" lon="0.18516">
        <ele>947.5</ele>
        <time>2016-07-23T09:25:08Z</time>
      </trkpt>
      <trkpt lat="42.52739" lon="0.18513">
        <ele>947.6</ele>
        <time>2016-07-23T09:25:10Z</time>
      </trkpt>
      <trkpt lat="42.52742" lon="0.1851">
        <ele>947.5</ele>
        <time>2016-07-23T09:25:12Z</time>
      </trkpt>
      <trkpt lat="42.52746" lon="0.18507">
        <ele>947.4</ele>
        <time>2016-07-23T09:25:14Z</time>
      </trkpt>
      <trkpt lat="42.52749" lon="0.18503">
        <ele>947.2</ele>
        <time>2016-07-23T09:25:16Z</time>
      </trkpt>
      <trkpt lat="42.52752" lon="0.18499">
        <ele>947</ele>
        <time>2016-07-23T09:25:18Z</time>
      </trkpt>
      <trkpt lat="42.52756" lon="0.18495">
        <ele>946.7</ele>
        <time>2016-07-23T09:25:20Z</time>
      </trkpt>
      <trkpt lat="42.52759" lon="0.18491">
        <ele>946.2</ele>
        <time>2016-07-23T09:25:22Z</time>
      </trkpt>
      <trkpt lat="42.52763" lon="0.18488">
        <ele>946</ele>
        <time>2016-07-23T09:25:24Z</time>
      </trkpt>
      <trkpt lat="42.52766" lon="0.18485">
        <ele>945.9</ele>
        <time>2016-07-23T09:25:26Z</time>
      </trkpt>
      <trkpt lat="42.5277" lon="0.18483">
        <ele>945.9</ele>
        <time>2016-07-23T09:25:28Z</time>
      </trkpt>
      <trkpt lat="42.52774" lon="0.1848">
        <ele>945.7</ele>
        <time>2016-07-23T09:25:30Z</time>
      </trkpt>
      <trkpt lat="42.52778" lon="0.18478">
        <ele>945.6</ele>
        <time>2016-07-23T09:25:32Z</time>
      </trkpt>
      <trkpt lat="42.52781" lon="0.18475">
        <ele>945.6</ele>
        <time>2016-07-23T09:25:34Z</time>
      </trkpt>
      <trkpt lat="42.52785" lon="0.18473">
        <ele>945.4</ele>
        <time>2016-07-23T09:25:36Z</time>
      </trkpt>
      <trkpt lat="42.52788" lon="0.18471">
        <ele>945.2</ele>
        <time>2016-07-23T09:25:38Z</time>
      </trkpt>
      <trkpt lat="42.52791" lon="0.18468">
        <ele>944.9</ele>
        <time>2016-07-23T09:25:40Z</time>
      </trkpt>
      <trkpt lat="42.52795" lon="0.18465">
        <ele>945</ele>
        <time>2016-07-23T09:25:42Z</time>
      </trkpt>
      <trkpt lat="42.52799" lon="0.18463">
        <ele>945.4</ele>
        <time>2016-07-23T09:25:44Z</time>
      </trkpt>
      <trkpt lat="42.52802" lon="0.18462">
        <ele>946</ele>
        <time>2016-07-23T09:25:46Z</time>
      </trkpt>
      <trkpt lat="42.52806" lon="0.1846">
        <ele>946.5</ele>
        <time>2016-07-23T09:25:48Z</time>
      </trkpt>
      <trkpt lat="42.5281" lon="0.18458">
        <ele>947.3</ele>
        <time>2016-07-23T09:25:50Z</time>
      </trkpt>
      <trkpt lat="42.52815" lon="0.18458">
        <ele>948.5</ele>
        <time>2016-07-23T09:25:52Z</time>
      </trkpt>
      <trkpt lat="42.52818" lon="0.18456">
        <ele>949.4</ele>
        <time>2016-07-23T09:25:54Z</time>
      </trkpt>
      <trkpt lat="42.52822" lon="0.18453">
        <ele>950.2</ele>
        <time>2016-07-23T09:25:56Z</time>
      </trkpt>
      <trkpt lat="42.52826" lon="0.18451">
        <ele>950.9</ele>
        <time>2016-07-23T09:25:58Z</time>
      </trkpt>
      <trkpt lat="42.52829" lon="0.18448">
        <ele>951.6</ele>
        <time>2016-07-23T09:26:00Z</time>
      </trkpt>
      <trkpt lat="42.52833" lon="0.18444">
        <ele>952.1</ele>
        <time>2016-07-23T09:26:02Z</time>
      </trkpt>
      <trkpt lat="42.52836" lon="0.1844">
        <ele>952.5</ele>
        <time>2016-07-23T09:26:04Z</time>
      </trkpt>
      <trkpt lat="42.52839" lon="0.18436">
        <ele>952.9</ele>
        <time>2016-07-23T09:26:06Z</time>
      </trkpt>
      <trkpt lat="42.52842" lon="0.18432">
        <ele>953.2</ele>
        <time>2016-07-23T09:26:08Z</time>
      </trkpt>
      <trkpt lat="42.52845" lon="0.18428">
        <ele>953.7</ele>
        <time>2016-07-23T09:26:10Z</time>
      </trkpt>
      <trkpt lat="42.52848" lon="0.18425">
        <ele>954.4</ele>
        <time>2016-07-23T09:26:12Z</time>
      </trkpt>
      <trkpt lat="42.52852" lon="0.18423">
        <ele>955.3</ele>
        <time>2016-07-23T09:26:14Z</time>
      </trkpt>
      <trkpt lat="42.52856" lon="0.18422">
        <ele>956.3</ele>
        <time>2016-07-23T09:26:16Z</time>
      </trkpt>
      <trkpt lat="42.5286" lon="0.18423">
        <ele>957.7</ele>
        <time>2016-07-23T09:26:18Z</time>
      </trkpt>
      <trkpt lat="42.52864" lon="0.18426">
        <ele>959.2</ele>
        <time>2016-07-23T09:26:20Z</time>
      </trkpt>
      <trkpt lat="42.52867" lon="0.18431">
        <ele>960.6</ele>
        <time>2016-07-23T09:26:22Z</time>
      </trkpt>
      <trkpt lat="42.52868" lon="0.18435">
        <ele>961.4</ele>
        <time>2016-07-23T09:26:23Z</time>
      </trkpt>
      <trkpt lat="42.52869" lon="0.18438">
        <ele>962</ele>
        <time>2016-07-23T09:26:24Z</time>
      </trkpt>
      <trkpt lat="42.52869" lon="0.18442">
        <ele>962.6</ele>
        <time>2016-07-23T09:26:25Z</time>
      </trkpt>
      <trkpt lat="42.52869" lon="0.18446">
        <ele>963</ele>
        <time>2016-07-23T09:26:26Z</time>
      </trkpt>
      <trkpt lat="42.52869" lon="0.1845">
        <ele>963.4</ele>
        <time>2016-07-23T09:26:27Z</time>
      </trkpt>
      <trkpt lat="42.52869" lon="0.18454">
        <ele>963.6</ele>
        <time>2016-07-23T09:26:28Z</time>
      </trkpt>
      <trkpt lat="42.52868" lon="0.18458">
        <ele>964</ele>
        <time>2016-07-23T09:26:29Z</time>
      </trkpt>
      <trkpt lat="42.52868" lon="0.18462">
        <ele>964.6</ele>
        <time>2016-07-23T09:26:30Z</time>
      </trkpt>
      <trkpt lat="42.52868" lon="0.18466">
        <ele>965.5</ele>
        <time>2016-07-23T09:26:31Z</time>
      </trkpt>
      <trkpt lat="42.52867" lon="0.1847">
        <ele>966.3</ele>
        <time>2016-07-23T09:26:32Z</time>
      </trkpt>
      <trkpt lat="42.52866" lon="0.18475">
        <ele>967</ele>
        <time>2016-07-23T09:26:33Z</time>
      </trkpt>
      <trkpt lat="42.52865" lon="0.18479">
        <ele>967.6</ele>
        <time>2016-07-23T09:26:34Z</time>
      </trkpt>
      <trkpt lat="42.52864" lon="0.18483">
        <ele>968.3</ele>
        <time>2016-07-23T09:26:35Z</time>
      </trkpt>
      <trkpt lat="42.52863" lon="0.18488">
        <ele>969.1</ele>
        <time>2016-07-23T09:26:36Z</time>
      </trkpt>
      <trkpt lat="42.52863" lon="0.18492">
        <ele>969.9</ele>
        <time>2016-07-23T09:26:37Z</time>
      </trkpt>
      <trkpt lat="42.52862" lon="0.18497">
        <ele>970.7</ele>
        <time>2016-07-23T09:26:38Z</time>
      </trkpt>
      <trkpt lat="42.52861" lon="0.18501">
        <ele>971.4</ele>
        <time>2016-07-23T09:26:39Z</time>
      </trkpt>
      <trkpt lat="42.5286" lon="0.18506">
        <ele>972.1</ele>
        <time>2016-07-23T09:26:40Z</time>
      </trkpt>
      <trkpt lat="42.52858" lon="0.1851">
        <ele>972.8</ele>
        <time>2016-07-23T09:26:41Z</time>
      </trkpt>
      <trkpt lat="42.52857" lon="0.18515">
        <ele>973.5</ele>
        <time>2016-07-23T09:26:42Z</time>
      </trkpt>
      <trkpt lat="42.52856" lon="0.1852">
        <ele>974.4</ele>
        <time>2016-07-23T09:26:43Z</time>
      </trkpt>
      <trkpt lat="42.52855" lon="0.18524">
        <ele>975.3</ele>
        <time>2016-07-23T09:26:44Z</time>
      </trkpt>
      <trkpt lat="42.52855" lon="0.18529">
        <ele>976.3</ele>
        <time>2016-07-23T09:26:45Z</time>
      </trkpt>
      <trkpt lat="42.52854" lon="0.18534">
        <ele>977.2</ele>
        <time>2016-07-23T09:26:46Z</time>
      </trkpt>
      <trkpt lat="42.52853" lon="0.18539">
        <ele>978.3</ele>
        <time>2016-07-23T09:26:47Z</time>
      </trkpt>
      <trkpt lat="42.52853" lon="0.18544">
        <ele>978.9</ele>
        <time>2016-07-23T09:26:48Z</time>
      </trkpt>
      <trkpt lat="42.52852" lon="0.18549">
        <ele>979.1</ele>
        <time>2016-07-23T09:26:49Z</time>
      </trkpt>
      <trkpt lat="42.52851" lon="0.18555">
        <ele>979.4</ele>
        <time>2016-07-23T09:26:50Z</time>
      </trkpt>
      <trkpt lat="42.5285" lon="0.1856">
        <ele>979.8</ele>
        <time>2016-07-23T09:26:51Z</time>
      </trkpt>
      <trkpt lat="42.52849" lon="0.18565">
        <ele>980.1</ele>
        <time>2016-07-23T09:26:52Z</time>
      </trkpt>
      <trkpt lat="42.52847" lon="0.18571">
        <ele>980.5</ele>
        <time>2016-07-23T09:26:53Z</time>
      </trkpt>
      <trkpt lat="42.52845" lon="0.18577">
        <ele>980.9</ele>
        <time>2016-07-23T09:26:54Z</time>
      </trkpt>
      <trkpt lat="42.52844" lon="0.18583">
        <ele>981.4</ele>
        <time>2016-07-23T09:26:55Z</time>
      </trkpt>
      <trkpt lat="42.52842" lon="0.18588">
        <ele>982</ele>
        <time>2016-07-23T09:26:56Z</time>
      </trkpt>
      <trkpt lat="42.5284" lon="0.18594">
        <ele>982.6</ele>
        <time>2016-07-23T09:26:57Z</time>
      </trkpt>
      <trkpt lat="42.52839" lon="0.186">
        <ele>983.3</ele>
        <time>2016-07-23T09:26:58Z</time>
      </trkpt>
      <trkpt lat="42.52838" lon="0.18607">
        <ele>984.2</ele>
        <time>2016-07-23T09:26:59Z</time>
      </trkpt>
      <trkpt lat="42.52837" lon="0.18614">
        <ele>985.2</ele>
        <time>2016-07-23T09:27:00Z</time>
      </trkpt>
      <trkpt lat="42.52836" lon="0.18622">
        <ele>986.2</ele>
        <time>2016-07-23T09:27:01Z</time>
      </trkpt>
      <trkpt lat="42.52835" lon="0.18628">
        <ele>987</ele>
        <time>2016-07-23T09:27:02Z</time>
      </trkpt>
      <trkpt lat="42.52834" lon="0.18634">
        <ele>987.4</ele>
        <time>2016-07-23T09:27:03Z</time>
      </trkpt>
      <trkpt lat="42.52833" lon="0.18641">
        <ele>988</ele>
        <time>2016-07-23T09:27:04Z</time>
      </trkpt>
      <trkpt lat="42.52832" lon="0.18647">
        <ele>988.5</ele>
        <time>2016-07-23T09:27:05Z</time>
      </trkpt>
      <trkpt lat="42.52832" lon="0.18654">
        <ele>989.1</ele>
        <time>2016-07-23T09:27:06Z</time>
      </trkpt>
      <trkpt lat="42.52831" lon="0.18662">
        <ele>989.7</ele>
        <time>2016-07-23T09:27:07Z</time>
      </trkpt>
      <trkpt lat="42.52831" lon="0.18668">
        <ele>990.2</ele>
        <time>2016-07-23T09:27:08Z</time>
      </trkpt>
      <trkpt lat="42.52831" lon="0.18674">
        <ele>990.8</ele>
        <time>2016-07-23T09:27:09Z</time>
      </trkpt>
      <trkpt lat="42.5283" lon="0.1868">
        <ele>991.4</ele>
        <time>2016-07-23T09:27:10Z</time>
      </trkpt>
      <trkpt lat="42.5283" lon="0.18686">
        <ele>991.8</ele>
        <time>2016-07-23T09:27:11Z</time>
      </trkpt>
      <trkpt lat="42.52828" lon="0.18692">
        <ele>993</ele>
        <time>2016-07-23T09:27:12Z</time>
      </trkpt>
      <trkpt lat="42.52827" lon="0.18697">
        <ele>994.1</ele>
        <time>2016-07-23T09:27:13Z</time>
      </trkpt>
      <trkpt lat="42.52825" lon="0.18702">
        <ele>995.3</ele>
        <time>2016-07-23T09:27:14Z</time>
      </trkpt>
      <trkpt lat="42.52823" lon="0.18707">
        <ele>996.6</ele>
        <time>2016-07-23T09:27:15Z</time>
      </trkpt>
      <trkpt lat="42.52821" lon="0.18712">
        <ele>997.9</ele>
        <time>2016-07-23T09:27:16Z</time>
      </trkpt>
      <trkpt lat="42.52819" lon="0.18717">
        <ele>999</ele>
        <time>2016-07-23T09:27:17Z</time>
      </trkpt>
      <trkpt lat="42.52817" lon="0.18722">
        <ele>1000.2</ele>
        <time>2016-07-23T09:27:18Z</time>
      </trkpt>
      <trkpt lat="42.52816" lon="0.18727">
        <ele>1001.4</ele>
        <time>2016-07-23T09:27:19Z</time>
      </trkpt>
      <trkpt lat="42.52815" lon="0.18733">
        <ele>1002.3</ele>
        <time>2016-07-23T09:27:20Z</time>
      </trkpt>
      <trkpt lat="42.52814" lon="0.18739">
        <ele>1003.2</ele>
        <time>2016-07-23T09:27:21Z</time>
      </trkpt>
      <trkpt lat="42.52813" lon="0.18745">
        <ele>1004</ele>
        <time>2016-07-23T09:27:22Z</time>
      </trkpt>
      <trkpt lat="42.52813" lon="0.18751">
        <ele>1004.6</ele>
        <time>2016-07-23T09:27:23Z</time>
      </trkpt>
      <trkpt lat="42.52813" lon="0.18758">
        <ele>1005.3</ele>
        <time>2016-07-23T09:27:24Z</time>
      </trkpt>
      <trkpt lat="42.52813" lon="0.18764">
        <ele>1005.8</ele>
        <time>2016-07-23T09:27:25Z</time>
      </trkpt>
      <trkpt lat="42.52813" lon="0.18771">
        <ele>1006.1</ele>
        <time>2016-07-23T09:27:26Z</time>
      </trkpt>
      <trkpt lat="42.52814" lon="0.18777">
        <ele>1006.1</ele>
        <time>2016-07-23T09:27:27Z</time>
      </trkpt>
      <trkpt lat="42.52815" lon="0.18783">
        <ele>1005.8</ele>
        <time>2016-07-23T09:27:28Z</time>
      </trkpt>
      <trkpt lat="42.52817" lon="0.18788">
        <ele>1005</ele>
        <time>2016-07-23T09:27:29Z</time>
      </trkpt>
      <trkpt lat="42.5282" lon="0.18793">
        <ele>1003.5</ele>
        <time>2016-07-23T09:27:30Z</time>
      </trkpt>
      <trkpt lat="42.52823" lon="0.18797">
        <ele>1001.5</ele>
        <time>2016-07-23T09:27:31Z</time>
      </trkpt>
      <trkpt lat="42.52826" lon="0.18801">
        <ele>999.5</ele>
        <time>2016-07-23T09:27:32Z</time>
      </trkpt>
      <trkpt lat="42.5283" lon="0.18804">
        <ele>997.6</ele>
        <time>2016-07-23T09:27:33Z</time>
      </trkpt>
      <trkpt lat="42.52833" lon="0.18808">
        <ele>995.7</ele>
        <time>2016-07-23T09:27:34Z</time>
      </trkpt>
      <trkpt lat="42.52837" lon="0.18812">
        <ele>993.9</ele>
        <time>2016-07-23T09:27:35Z</time>
      </trkpt>
      <trkpt lat="42.5284" lon="0.18815">
        <ele>992.3</ele>
        <time>2016-07-23T09:27:36Z</time>
      </trkpt>
      <trkpt lat="42.52844" lon="0.18819">
        <ele>990.8</ele>
        <time>2016-07-23T09:27:37Z</time>
      </trkpt>
      <trkpt lat="42.52847" lon="0.18823">
        <ele>989.6</ele>
        <time>2016-07-23T09:27:38Z</time>
      </trkpt>
      <trkpt lat="42.5285" lon="0.18826">
        <ele>988.5</ele>
        <time>2016-07-23T09:27:39Z</time>
      </trkpt>
      <trkpt lat="42.52853" lon="0.18829">
        <ele>987.5</ele>
        <time>2016-07-23T09:27:40Z</time>
      </trkpt>
      <trkpt lat="42.52856" lon="0.18832">
        <ele>986.3</ele>
        <time>2016-07-23T09:27:41Z</time>
      </trkpt>
      <trkpt lat="42.5286" lon="0.18835">
        <ele>985.4</ele>
        <time>2016-07-23T09:27:42Z</time>
      </trkpt>
      <trkpt lat="42.52863" lon="0.18839">
        <ele>984.6</ele>
        <time>2016-07-23T09:27:43Z</time>
      </trkpt>
      <trkpt lat="42.52866" lon="0.18843">
        <ele>984.2</ele>
        <time>2016-07-23T09:27:44Z</time>
      </trkpt>
      <trkpt lat="42.52868" lon="0.18847">
        <ele>984.1</ele>
        <time>2016-07-23T09:27:45Z</time>
      </trkpt>
      <trkpt lat="42.5287" lon="0.18852">
        <ele>984.4</ele>
        <time>2016-07-23T09:27:46Z</time>
      </trkpt>
      <trkpt lat="42.52872" lon="0.18857">
        <ele>984.8</ele>
        <time>2016-07-23T09:27:47Z</time>
      </trkpt>
      <trkpt lat="42.52874" lon="0.18862">
        <ele>985.5</ele>
        <time>2016-07-23T09:27:48Z</time>
      </trkpt>
      <trkpt lat="42.52875" lon="0.18867">
        <ele>986.3</ele>
        <time>2016-07-23T09:27:49Z</time>
      </trkpt>
      <trkpt lat="42.52876" lon="0.18873">
        <ele>987.1</ele>
        <time>2016-07-23T09:27:50Z</time>
      </trkpt>
      <trkpt lat="42.52877" lon="0.18878">
        <ele>987.2</ele>
        <time>2016-07-23T09:27:51Z</time>
      </trkpt>
      <trkpt lat="42.52878" lon="0.18883">
        <ele>986.8</ele>
        <time>2016-07-23T09:27:52Z</time>
      </trkpt>
      <trkpt lat="42.52878" lon="0.18888">
        <ele>986.6</ele>
        <time>2016-07-23T09:27:53Z</time>
      </trkpt>
      <trkpt lat="42.52878" lon="0.18893">
        <ele>986.6</ele>
        <time>2016-07-23T09:27:54Z</time>
      </trkpt>
      <trkpt lat="42.52877" lon="0.18898">
        <ele>987</ele>
        <time>2016-07-23T09:27:55Z</time>
      </trkpt>
      <trkpt lat="42.52874" lon="0.18903">
        <ele>987.4</ele>
        <time>2016-07-23T09:27:56Z</time>
      </trkpt>
      <trkpt lat="42.52871" lon="0.18907">
        <ele>987.7</ele>
        <time>2016-07-23T09:27:57Z</time>
      </trkpt>
      <trkpt lat="42.52867" lon="0.18911">
        <ele>987.8</ele>
        <time>2016-07-23T09:27:58Z</time>
      </trkpt>
      <trkpt lat="42.52863" lon="0.18915">
        <ele>987.9</ele>
        <time>2016-07-23T09:27:59Z</time>
      </trkpt>
      <trkpt lat="42.52858" lon="0.18918">
        <ele>988</ele>
        <time>2016-07-23T09:28:00Z</time>
      </trkpt>
      <trkpt lat="42.52853" lon="0.18921">
        <ele>987.9</ele>
        <time>2016-07-23T09:28:01Z</time>
      </trkpt>
      <trkpt lat="42.52847" lon="0.18924">
        <ele>987.8</ele>
        <time>2016-07-23T09:28:02Z</time>
      </trkpt>
      <trkpt lat="42.52842" lon="0.18927">
        <ele>987.4</ele>
        <time>2016-07-23T09:28:03Z</time>
      </trkpt>
      <trkpt lat="42.52837" lon="0.18931">
        <ele>986.9</ele>
        <time>2016-07-23T09:28:04Z</time>
      </trkpt>
      <trkpt lat="42.52831" lon="0.18936">
        <ele>985.9</ele>
        <time>2016-07-23T09:28:05Z</time>
      </trkpt>
      <trkpt lat="42.52827" lon="0.18941">
        <ele>984.6</ele>
        <time>2016-07-23T09:28:06Z</time>
      </trkpt>
      <trkpt lat="42.52823" lon="0.18948">
        <ele>982.9</ele>
        <time>2016-07-23T09:28:07Z</time>
      </trkpt>
      <trkpt lat="42.52819" lon="0.18954">
        <ele>981.1</ele>
        <time>2016-07-23T09:28:08Z</time>
      </trkpt>
      <trkpt lat="42.52814" lon="0.18959">
        <ele>979</ele>
        <time>2016-07-23T09:28:09Z</time>
      </trkpt>
      <trkpt lat="42.52807" lon="0.18962">
        <ele>976.9</ele>
        <time>2016-07-23T09:28:10Z</time>
      </trkpt>
      <trkpt lat="42.52802" lon="0.18965">
        <ele>975</ele>
        <time>2016-07-23T09:28:11Z</time>
      </trkpt>
      <trkpt lat="42.52797" lon="0.18967">
        <ele>973.6</ele>
        <time>2016-07-23T09:28:12Z</time>
      </trkpt>
      <trkpt lat="42.52792" lon="0.18968">
        <ele>972.6</ele>
        <time>2016-07-23T09:28:13Z</time>
      </trkpt>
      <trkpt lat="42.52789" lon="0.18967">
        <ele>972.6</ele>
        <time>2016-07-23T09:28:14Z</time>
      </trkpt>
      <trkpt lat="42.52786" lon="0.18963">
        <ele>974</ele>
        <time>2016-07-23T09:28:15Z</time>
      </trkpt>
      <trkpt lat="42.52783" lon="0.18957">
        <ele>976.2</ele>
        <time>2016-07-23T09:28:16Z</time>
      </trkpt>
      <trkpt lat="42.52781" lon="0.18952">
        <ele>977.9</ele>
        <time>2016-07-23T09:28:17Z</time>
      </trkpt>
      <trkpt lat="42.52779" lon="0.18945">
        <ele>980.1</ele>
        <time>2016-07-23T09:28:18Z</time>
      </trkpt>
      <trkpt lat="42.52779" lon="0.18938">
        <ele>982.9</ele>
        <time>2016-07-23T09:28:19Z</time>
      </trkpt>
      <trkpt lat="42.52778" lon="0.18931">
        <ele>985.5</ele>
        <time>2016-07-23T09:28:20Z</time>
      </trkpt>
      <trkpt lat="42.52776" lon="0.18925">
        <ele>987.4</ele>
        <time>2016-07-23T09:28:21Z</time>
      </trkpt>
      <trkpt lat="42.52773" lon="0.18918">
        <ele>989.6</ele>
        <time>2016-07-23T09:28:22Z</time>
      </trkpt>
      <trkpt lat="42.52769" lon="0.18913">
        <ele>991.2</ele>
        <time>2016-07-23T09:28:23Z</time>
      </trkpt>
      <trkpt lat="42.52766" lon="0.18907">
        <ele>993</ele>
        <time>2016-07-23T09:28:24Z</time>
      </trkpt>
      <trkpt lat="42.52762" lon="0.18903">
        <ele>994.2</ele>
        <time>2016-07-23T09:28:25Z</time>
      </trkpt>
      <trkpt lat="42.52757" lon="0.189">
        <ele>994.7</ele>
        <time>2016-07-23T09:28:26Z</time>
      </trkpt>
      <trkpt lat="42.52752" lon="0.18899">
        <ele>994.5</ele>
        <time>2016-07-23T09:28:27Z</time>
      </trkpt>
      <trkpt lat="42.52746" lon="0.189">
        <ele>993.4</ele>
        <time>2016-07-23T09:28:28Z</time>
      </trkpt>
      <trkpt lat="42.52742" lon="0.18901">
        <ele>992.4</ele>
        <time>2016-07-23T09:28:29Z</time>
      </trkpt>
      <trkpt lat="42.52736" lon="0.18903">
        <ele>991.3</ele>
        <time>2016-07-23T09:28:30Z</time>
      </trkpt>
      <trkpt lat="42.52732" lon="0.18904">
        <ele>990.3</ele>
        <time>2016-07-23T09:28:31Z</time>
      </trkpt>
      <trkpt lat="42.52726" lon="0.18906">
        <ele>988.9</ele>
        <time>2016-07-23T09:28:32Z</time>
      </trkpt>
      <trkpt lat="42.52722" lon="0.18906">
        <ele>988.3</ele>
        <time>2016-07-23T09:28:33Z</time>
      </trkpt>
      <trkpt lat="42.52718" lon="0.18907">
        <ele>987.3</ele>
        <time>2016-07-23T09:28:34Z</time>
      </trkpt>
      <trkpt lat="42.52714" lon="0.18908">
        <ele>986.2</ele>
        <time>2016-07-23T09:28:35Z</time>
      </trkpt>
      <trkpt lat="42.52709" lon="0.1891">
        <ele>985.2</ele>
        <time>2016-07-23T09:28:36Z</time>
      </trkpt>
      <trkpt lat="42.52705" lon="0.18911">
        <ele>984.5</ele>
        <time>2016-07-23T09:28:37Z</time>
      </trkpt>
      <trkpt lat="42.52702" lon="0.18911">
        <ele>984</ele>
        <time>2016-07-23T09:28:38Z</time>
      </trkpt>
      <trkpt lat="42.52697" lon="0.18911">
        <ele>983.8</ele>
        <time>2016-07-23T09:28:39Z</time>
      </trkpt>
      <trkpt lat="42.52693" lon="0.18911">
        <ele>983.7</ele>
        <time>2016-07-23T09:28:40Z</time>
      </trkpt>
      <trkpt lat="42.52689" lon="0.1891">
        <ele>983.7</ele>
        <time>2016-07-23T09:28:41Z</time>
      </trkpt>
      <trkpt lat="42.52685" lon="0.18909">
        <ele>983.8</ele>
        <time>2016-07-23T09:28:42Z</time>
      </trkpt>
      <trkpt lat="42.52681" lon="0.18907">
        <ele>984.5</ele>
        <time>2016-07-23T09:28:43Z</time>
      </trkpt>
      <trkpt lat="42.52677" lon="0.18904">
        <ele>985.7</ele>
        <time>2016-07-23T09:28:44Z</time>
      </trkpt>
      <trkpt lat="42.52675" lon="0.18899">
        <ele>987.5</ele>
        <time>2016-07-23T09:28:45Z</time>
      </trkpt>
      <trkpt lat="42.52672" lon="0.18894">
        <ele>989.9</ele>
        <time>2016-07-23T09:28:46Z</time>
      </trkpt>
      <trkpt lat="42.5267" lon="0.18887">
        <ele>992.4</ele>
        <time>2016-07-23T09:28:47Z</time>
      </trkpt>
      <trkpt lat="42.52668" lon="0.18882">
        <ele>994.8</ele>
        <time>2016-07-23T09:28:48Z</time>
      </trkpt>
      <trkpt lat="42.52665" lon="0.18877">
        <ele>996.7</ele>
        <time>2016-07-23T09:28:49Z</time>
      </trkpt>
      <trkpt lat="42.52661" lon="0.18873">
        <ele>997.6</ele>
        <time>2016-07-23T09:28:50Z</time>
      </trkpt>
      <trkpt lat="42.52657" lon="0.18872">
        <ele>997.7</ele>
        <time>2016-07-23T09:28:51Z</time>
      </trkpt>
      <trkpt lat="42.52652" lon="0.18872">
        <ele>997.4</ele>
        <time>2016-07-23T09:28:52Z</time>
      </trkpt>
      <trkpt lat="42.52647" lon="0.18873">
        <ele>996.8</ele>
        <time>2016-07-23T09:28:53Z</time>
      </trkpt>
      <trkpt lat="42.52643" lon="0.18875">
        <ele>996.1</ele>
        <time>2016-07-23T09:28:54Z</time>
      </trkpt>
      <trkpt lat="42.52638" lon="0.18878">
        <ele>994.7</ele>
        <time>2016-07-23T09:28:55Z</time>
      </trkpt>
      <trkpt lat="42.52633" lon="0.1888">
        <ele>993.4</ele>
        <time>2016-07-23T09:28:56Z</time>
      </trkpt>
      <trkpt lat="42.52628" lon="0.18882">
        <ele>992.2</ele>
        <time>2016-07-23T09:28:57Z</time>
      </trkpt>
      <trkpt lat="42.52623" lon="0.18884">
        <ele>991.4</ele>
        <time>2016-07-23T09:28:58Z</time>
      </trkpt>
      <trkpt lat="42.52617" lon="0.18885">
        <ele>991</ele>
        <time>2016-07-23T09:28:59Z</time>
      </trkpt>
      <trkpt lat="42.52612" lon="0.18887">
        <ele>990.6</ele>
        <time>2016-07-23T09:29:00Z</time>
      </trkpt>
      <trkpt lat="42.52606" lon="0.18889">
        <ele>989.9</ele>
        <time>2016-07-23T09:29:01Z</time>
      </trkpt>
      <trkpt lat="42.526" lon="0.18891">
        <ele>989.6</ele>
        <time>2016-07-23T09:29:02Z</time>
      </trkpt>
      <trkpt lat="42.52595" lon="0.18892">
        <ele>989.2</ele>
        <time>2016-07-23T09:29:03Z</time>
      </trkpt>
      <trkpt lat="42.52591" lon="0.18894">
        <ele>988.9</ele>
        <time>2016-07-23T09:29:04Z</time>
      </trkpt>
      <trkpt lat="42.52586" lon="0.18895">
        <ele>988.5</ele>
        <time>2016-07-23T09:29:05Z</time>
      </trkpt>
      <trkpt lat="42.52581" lon="0.18896">
        <ele>988.3</ele>
        <time>2016-07-23T09:29:06Z</time>
      </trkpt>
      <trkpt lat="42.52575" lon="0.18897">
        <ele>988.2</ele>
        <time>2016-07-23T09:29:07Z</time>
      </trkpt>
      <trkpt lat="42.5257" lon="0.18898">
        <ele>988.2</ele>
        <time>2016-07-23T09:29:08Z</time>
      </trkpt>
      <trkpt lat="42.52564" lon="0.18898">
        <ele>988.5</ele>
        <time>2016-07-23T09:29:09Z</time>
      </trkpt>
      <trkpt lat="42.52559" lon="0.18898">
        <ele>988.9</ele>
        <time>2016-07-23T09:29:10Z</time>
      </trkpt>
      <trkpt lat="42.52553" lon="0.18897">
        <ele>989.5</ele>
        <time>2016-07-23T09:29:11Z</time>
      </trkpt>
      <trkpt lat="42.52548" lon="0.18896">
        <ele>990</ele>
        <time>2016-07-23T09:29:12Z</time>
      </trkpt>
      <trkpt lat="42.52542" lon="0.18896">
        <ele>990.6</ele>
        <time>2016-07-23T09:29:13Z</time>
      </trkpt>
      <trkpt lat="42.52537" lon="0.18895">
        <ele>991.4</ele>
        <time>2016-07-23T09:29:14Z</time>
      </trkpt>
      <trkpt lat="42.52532" lon="0.18895">
        <ele>992.1</ele>
        <time>2016-07-23T09:29:15Z</time>
      </trkpt>
      <trkpt lat="42.52527" lon="0.18895">
        <ele>992.6</ele>
        <time>2016-07-23T09:29:16Z</time>
      </trkpt>
      <trkpt lat="42.52523" lon="0.18895">
        <ele>993.2</ele>
        <time>2016-07-23T09:29:17Z</time>
      </trkpt>
      <trkpt lat="42.52518" lon="0.18894">
        <ele>994.1</ele>
        <time>2016-07-23T09:29:18Z</time>
      </trkpt>
      <trkpt lat="42.52513" lon="0.18893">
        <ele>995.4</ele>
        <time>2016-07-23T09:29:19Z</time>
      </trkpt>
      <trkpt lat="42.52509" lon="0.18891">
        <ele>996.6</ele>
        <time>2016-07-23T09:29:20Z</time>
      </trkpt>
      <trkpt lat="42.52504" lon="0.1889">
        <ele>997.6</ele>
        <time>2016-07-23T09:29:21Z</time>
      </trkpt>
      <trkpt lat="42.52499" lon="0.18891">
        <ele>997.9</ele>
        <time>2016-07-23T09:29:22Z</time>
      </trkpt>
      <trkpt lat="42.52495" lon="0.18894">
        <ele>997.5</ele>
        <time>2016-07-23T09:29:23Z</time>
      </trkpt>
      <trkpt lat="42.52491" lon="0.18898">
        <ele>996.4</ele>
        <time>2016-07-23T09:29:24Z</time>
      </trkpt>
      <trkpt lat="42.52488" lon="0.18904">
        <ele>995.1</ele>
        <time>2016-07-23T09:29:25Z</time>
      </trkpt>
      <trkpt lat="42.52485" lon="0.18909">
        <ele>993.7</ele>
        <time>2016-07-23T09:29:26Z</time>
      </trkpt>
      <trkpt lat="42.52482" lon="0.18915">
        <ele>992.1</ele>
        <time>2016-07-23T09:29:27Z</time>
      </trkpt>
      <trkpt lat="42.52478" lon="0.18921">
        <ele>990.8</ele>
        <time>2016-07-23T09:29:28Z</time>
      </trkpt>
      <trkpt lat="42.52474" lon="0.18926">
        <ele>989.7</ele>
        <time>2016-07-23T09:29:29Z</time>
      </trkpt>
      <trkpt lat="42.5247" lon="0.18931">
        <ele>988.6</ele>
        <time>2016-07-23T09:29:30Z</time>
      </trkpt>
      <trkpt lat="42.52466" lon="0.18937">
        <ele>987.6</ele>
        <time>2016-07-23T09:29:31Z</time>
      </trkpt>
      <trkpt lat="42.52462" lon="0.18942">
        <ele>986.6</ele>
        <time>2016-07-23T09:29:32Z</time>
      </trkpt>
      <trkpt lat="42.52459" lon="0.18946">
        <ele>985.7</ele>
        <time>2016-07-23T09:29:33Z</time>
      </trkpt>
      <trkpt lat="42.52454" lon="0.18951">
        <ele>984.7</ele>
        <time>2016-07-23T09:29:34Z</time>
      </trkpt>
      <trkpt lat="42.5245" lon="0.18955">
        <ele>984</ele>
        <time>2016-07-23T09:29:35Z</time>
      </trkpt>
      <trkpt lat="42.52445" lon="0.18958">
        <ele>983.6</ele>
        <time>2016-07-23T09:29:36Z</time>
      </trkpt>
      <trkpt lat="42.5244" lon="0.18961">
        <ele>983.8</ele>
        <time>2016-07-23T09:29:37Z</time>
      </trkpt>
      <trkpt lat="42.52435" lon="0.18962">
        <ele>984.3</ele>
        <time>2016-07-23T09:29:38Z</time>
      </trkpt>
      <trkpt lat="42.52429" lon="0.18962">
        <ele>985</ele>
        <time>2016-07-23T09:29:39Z</time>
      </trkpt>
      <trkpt lat="42.52424" lon="0.18961">
        <ele>985.8</ele>
        <time>2016-07-23T09:29:40Z</time>
      </trkpt>
      <trkpt lat="42.52419" lon="0.18961">
        <ele>986.5</ele>
        <time>2016-07-23T09:29:41Z</time>
      </trkpt>
      <trkpt lat="42.52414" lon="0.18961">
        <ele>987</ele>
        <time>2016-07-23T09:29:42Z</time>
      </trkpt>
      <trkpt lat="42.52411" lon="0.18964">
        <ele>987.2</ele>
        <time>2016-07-23T09:29:43Z</time>
      </trkpt>
      <trkpt lat="42.52409" lon="0.18967">
        <ele>987.2</ele>
        <time>2016-07-23T09:29:44Z</time>
      </trkpt>
      <trkpt lat="42.52408" lon="0.18972">
        <ele>986.8</ele>
        <time>2016-07-23T09:29:45Z</time>
      </trkpt>
      <trkpt lat="42.52408" lon="0.18978">
        <ele>986.3</ele>
        <time>2016-07-23T09:29:46Z</time>
      </trkpt>
      <trkpt lat="42.52408" lon="0.18984">
        <ele>985.8</ele>
        <time>2016-07-23T09:29:47Z</time>
      </trkpt>
      <trkpt lat="42.52406" lon="0.18991">
        <ele>985.5</ele>
        <time>2016-07-23T09:29:48Z</time>
      </trkpt>
      <trkpt lat="42.52404" lon="0.18997">
        <ele>985.4</ele>
        <time>2016-07-23T09:29:49Z</time>
      </trkpt>
      <trkpt lat="42.52402" lon="0.19004">
        <ele>985.3</ele>
        <time>2016-07-23T09:29:50Z</time>
      </trkpt>
      <trkpt lat="42.52401" lon="0.1901">
        <ele>985.1</ele>
        <time>2016-07-23T09:29:51Z</time>
      </trkpt>
      <trkpt lat="42.52402" lon="0.19016">
        <ele>984.6</ele>
        <time>2016-07-23T09:29:52Z</time>
      </trkpt>
      <trkpt lat="42.52404" lon="0.19021">
        <ele>983.7</ele>
        <time>2016-07-23T09:29:53Z</time>
      </trkpt>
      <trkpt lat="42.52408" lon="0.19024">
        <ele>982.4</ele>
        <time>2016-07-23T09:29:54Z</time>
      </trkpt>
      <trkpt lat="42.52413" lon="0.19025">
        <ele>980.9</ele>
        <time>2016-07-23T09:29:55Z</time>
      </trkpt>
      <trkpt lat="42.52418" lon="0.19025">
        <ele>979.6</ele>
        <time>2016-07-23T09:29:56Z</time>
      </trkpt>
      <trkpt lat="42.52422" lon="0.19023">
        <ele>978.5</ele>
        <time>2016-07-23T09:29:57Z</time>
      </trkpt>
      <trkpt lat="42.52427" lon="0.19021">
        <ele>977.6</ele>
        <time>2016-07-23T09:29:58Z</time>
      </trkpt>
      <trkpt lat="42.52431" lon="0.1902">
        <ele>976.7</ele>
        <time>2016-07-23T09:29:59Z</time>
      </trkpt>
      <trkpt lat="42.52435" lon="0.1902">
        <ele>975.7</ele>
        <time>2016-07-23T09:30:00Z</time>
      </trkpt>
      <trkpt lat="42.52439" lon="0.1902">
        <ele>974.6</ele>
        <time>2016-07-23T09:30:01Z</time>
      </trkpt>
      <trkpt lat="42.52443" lon="0.1902">
        <ele>973.4</ele>
        <time>2016-07-23T09:30:02Z</time>
      </trkpt>
      <trkpt lat="42.52447" lon="0.19021">
        <ele>972.2</ele>
        <time>2016-07-23T09:30:03Z</time>
      </trkpt>
      <trkpt lat="42.5245" lon="0.19023">
        <ele>971</ele>
        <time>2016-07-23T09:30:04Z</time>
      </trkpt>
      <trkpt lat="42.52454" lon="0.19025">
        <ele>969.8</ele>
        <time>2016-07-23T09:30:05Z</time>
      </trkpt>
      <trkpt lat="42.52457" lon="0.19026">
        <ele>968.6</ele>
        <time>2016-07-23T09:30:06Z</time>
      </trkpt>
      <trkpt lat="42.5246" lon="0.19027">
        <ele>967.8</ele>
        <time>2016-07-23T09:30:07Z</time>
      </trkpt>
      <trkpt lat="42.52464" lon="0.19028">
        <ele>967.3</ele>
        <time>2016-07-23T09:30:08Z</time>
      </trkpt>
      <trkpt lat="42.52467" lon="0.19028">
        <ele>966.9</ele>
        <time>2016-07-23T09:30:09Z</time>
      </trkpt>
      <trkpt lat="42.5247" lon="0.19029">
        <ele>966.4</ele>
        <time>2016-07-23T09:30:10Z</time>
      </trkpt>
      <trkpt lat="42.52473" lon="0.19029">
        <ele>966</ele>
        <time>2016-07-23T09:30:11Z</time>
      </trkpt>
      <trkpt lat="42.52476" lon="0.1903">
        <ele>965.6</ele>
        <time>2016-07-23T09:30:12Z</time>
      </trkpt>
      <trkpt lat="42.52479" lon="0.1903">
        <ele>965.2</ele>
        <time>2016-07-23T09:30:13Z</time>
      </trkpt>
      <trkpt lat="42.52482" lon="0.1903">
        <ele>964.9</ele>
        <time>2016-07-23T09:30:14Z</time>
      </trkpt>
      <trkpt lat="42.52485" lon="0.19029">
        <ele>964.8</ele>
        <time>2016-07-23T09:30:15Z</time>
      </trkpt>
      <trkpt lat="42.52488" lon="0.19028">
        <ele>964.6</ele>
        <time>2016-07-23T09:30:16Z</time>
      </trkpt>
      <trkpt lat="42.52491" lon="0.19027">
        <ele>964.5</ele>
        <time>2016-07-23T09:30:17Z</time>
      </trkpt>
      <trkpt lat="42.52494" lon="0.19025">
        <ele>964.5</ele>
        <time>2016-07-23T09:30:18Z</time>
      </trkpt>
      <trkpt lat="42.52497" lon="0.19023">
        <ele>964.4</ele>
        <time>2016-07-23T09:30:19Z</time>
      </trkpt>
      <trkpt lat="42.525" lon="0.19022">
        <ele>964.3</ele>
        <time>2016-07-23T09:30:20Z</time>
      </trkpt>
      <trkpt lat="42.52503" lon="0.1902">
        <ele>964.2</ele>
        <time>2016-07-23T09:30:21Z</time>
      </trkpt>
      <trkpt lat="42.52506" lon="0.1902">
        <ele>964</ele>
        <time>2016-07-23T09:30:22Z</time>
      </trkpt>
      <trkpt lat="42.52509" lon="0.19019">
        <ele>963.7</ele>
        <time>2016-07-23T09:30:23Z</time>
      </trkpt>
      <trkpt lat="42.52512" lon="0.1902">
        <ele>963.3</ele>
        <time>2016-07-23T09:30:24Z</time>
      </trkpt>
      <trkpt lat="42.52514" lon="0.19021">
        <ele>962.8</ele>
        <time>2016-07-23T09:30:25Z</time>
      </trkpt>
      <trkpt lat="42.52518" lon="0.19026">
        <ele>961.7</ele>
        <time>2016-07-23T09:30:27Z</time>
      </trkpt>
      <trkpt lat="42.5252" lon="0.19033">
        <ele>960.5</ele>
        <time>2016-07-23T09:30:29Z</time>
      </trkpt>
      <trkpt lat="42.5252" lon="0.1904">
        <ele>959.5</ele>
        <time>2016-07-23T09:30:31Z</time>
      </trkpt>
      <trkpt lat="42.52518" lon="0.19045">
        <ele>960.2</ele>
        <time>2016-07-23T09:30:33Z</time>
      </trkpt>
      <trkpt lat="42.52515" lon="0.19051">
        <ele>961.8</ele>
        <time>2016-07-23T09:30:35Z</time>
      </trkpt>
      <trkpt lat="42.52513" lon="0.19056">
        <ele>963.2</ele>
        <time>2016-07-23T09:30:37Z</time>
      </trkpt>
      <trkpt lat="42.52511" lon="0.19061">
        <ele>964.6</ele>
        <time>2016-07-23T09:30:39Z</time>
      </trkpt>
      <trkpt lat="42.52509" lon="0.19067">
        <ele>966.2</ele>
        <time>2016-07-23T09:30:41Z</time>
      </trkpt>
      <trkpt lat="42.52508" lon="0.19072">
        <ele>967.6</ele>
        <time>2016-07-23T09:30:43Z</time>
      </trkpt>
      <trkpt lat="42.52507" lon="0.19078">
        <ele>969.1</ele>
        <time>2016-07-23T09:30:45Z</time>
      </trkpt>
      <trkpt lat="42.52507" lon="0.19083">
        <ele>970.6</ele>
        <time>2016-07-23T09:30:47Z</time>
      </trkpt>
      <trkpt lat="42.52507" lon="0.1909">
        <ele>972.1</ele>
        <time>2016-07-23T09:30:49Z</time>
      </trkpt>
      <trkpt lat="42.52508" lon="0.19096">
        <ele>973.6</ele>
        <time>2016-07-23T09:30:51Z</time>
      </trkpt>
      <trkpt lat="42.52508" lon="0.19102">
        <ele>975</ele>
        <time>2016-07-23T09:30:53Z</time>
      </trkpt>
      <trkpt lat="42.52508" lon="0.19108">
        <ele>976.6</ele>
        <time>2016-07-23T09:30:55Z</time>
      </trkpt>
      <trkpt lat="42.52508" lon="0.19115">
        <ele>978.1</ele>
        <time>2016-07-23T09:30:57Z</time>
      </trkpt>
      <trkpt lat="42.52508" lon="0.19121">
        <ele>979.6</ele>
        <time>2016-07-23T09:30:59Z</time>
      </trkpt>
      <trkpt lat="42.52508" lon="0.19127">
        <ele>981.1</ele>
        <time>2016-07-23T09:31:01Z</time>
      </trkpt>
      <trkpt lat="42.52509" lon="0.19133">
        <ele>982.7</ele>
        <time>2016-07-23T09:31:03Z</time>
      </trkpt>
      <trkpt lat="42.52509" lon="0.19139">
        <ele>984.4</ele>
        <time>2016-07-23T09:31:05Z</time>
      </trkpt>
      <trkpt lat="42.5251" lon="0.19146">
        <ele>986.3</ele>
        <time>2016-07-23T09:31:07Z</time>
      </trkpt>
      <trkpt lat="42.5251" lon="0.19153">
        <ele>988.1</ele>
        <time>2016-07-23T09:31:09Z</time>
      </trkpt>
      <trkpt lat="42.52511" lon="0.19159">
        <ele>989.6</ele>
        <time>2016-07-23T09:31:11Z</time>
      </trkpt>
      <trkpt lat="42.52513" lon="0.19164">
        <ele>990.6</ele>
        <time>2016-07-23T09:31:13Z</time>
      </trkpt>
      <trkpt lat="42.52515" lon="0.19166">
        <ele>990.8</ele>
        <time>2016-07-23T09:31:14Z</time>
      </trkpt>
      <trkpt lat="42.52518" lon="0.19168">
        <ele>990.6</ele>
        <time>2016-07-23T09:31:15Z</time>
      </trkpt>
      <trkpt lat="42.52523" lon="0.19168">
        <ele>989.7</ele>
        <time>2016-07-23T09:31:17Z</time>
      </trkpt>
      <trkpt lat="42.52527" lon="0.19167">
        <ele>988.5</ele>
        <time>2016-07-23T09:31:19Z</time>
      </trkpt>
      <trkpt lat="42.52531" lon="0.19165">
        <ele>987.3</ele>
        <time>2016-07-23T09:31:21Z</time>
      </trkpt>
      <trkpt lat="42.52534" lon="0.19161">
        <ele>985.8</ele>
        <time>2016-07-23T09:31:23Z</time>
      </trkpt>
      <trkpt lat="42.52537" lon="0.19156">
        <ele>984.1</ele>
        <time>2016-07-23T09:31:25Z</time>
      </trkpt>
      <trkpt lat="42.5254" lon="0.19151">
        <ele>982.6</ele>
        <time>2016-07-23T09:31:27Z</time>
      </trkpt>
      <trkpt lat="42.52544" lon="0.19147">
        <ele>981</ele>
        <time>2016-07-23T09:31:29Z</time>
      </trkpt>
      <trkpt lat="42.52547" lon="0.19143">
        <ele>979.3</ele>
        <time>2016-07-23T09:31:31Z</time>
      </trkpt>
      <trkpt lat="42.52551" lon="0.19139">
        <ele>977.8</ele>
        <time>2016-07-23T09:31:33Z</time>
      </trkpt>
      <trkpt lat="42.52555" lon="0.19136">
        <ele>976.2</ele>
        <time>2016-07-23T09:31:35Z</time>
      </trkpt>
      <trkpt lat="42.52559" lon="0.19135">
        <ele>974.9</ele>
        <time>2016-07-23T09:31:37Z</time>
      </trkpt>
      <trkpt lat="42.52563" lon="0.19134">
        <ele>973.9</ele>
        <time>2016-07-23T09:31:39Z</time>
      </trkpt>
      <trkpt lat="42.52567" lon="0.19136">
        <ele>973.2</ele>
        <time>2016-07-23T09:31:41Z</time>
      </trkpt>
      <trkpt lat="42.5257" lon="0.19138">
        <ele>972.9</ele>
        <time>2016-07-23T09:31:43Z</time>
      </trkpt>
      <trkpt lat="42.52573" lon="0.19141">
        <ele>972.7</ele>
        <time>2016-07-23T09:31:45Z</time>
      </trkpt>
      <trkpt lat="42.52577" lon="0.19144">
        <ele>972.5</ele>
        <time>2016-07-23T09:31:47Z</time>
      </trkpt>
      <trkpt lat="42.52579" lon="0.19147">
        <ele>972.7</ele>
        <time>2016-07-23T09:31:49Z</time>
      </trkpt>
      <trkpt lat="42.52581" lon="0.19152">
        <ele>973.1</ele>
        <time>2016-07-23T09:31:51Z</time>
      </trkpt>
      <trkpt lat="42.52582" lon="0.19156">
        <ele>973.9</ele>
        <time>2016-07-23T09:31:53Z</time>
      </trkpt>
      <trkpt lat="42.52582" lon="0.19162">
        <ele>975.1</ele>
        <time>2016-07-23T09:31:55Z</time>
      </trkpt>
      <trkpt lat="42.52582" lon="0.19167">
        <ele>976.3</ele>
        <time>2016-07-23T09:31:57Z</time>
      </trkpt>
      <trkpt lat="42.52582" lon="0.19172">
        <ele>977.3</ele>
        <time>2016-07-23T09:31:59Z</time>
      </trkpt>
      <trkpt lat="42.52582" lon="0.19177">
        <ele>978.2</ele>
        <time>2016-07-23T09:32:01Z</time>
      </trkpt>
      <trkpt lat="42.52583" lon="0.19183">
        <ele>979.2</ele>
        <time>2016-07-23T09:32:03Z</time>
      </trkpt>
      <trkpt lat="42.52584" lon="0.19188">
        <ele>980.2</ele>
        <time>2016-07-23T09:32:05Z</time>
      </trkpt>
      <trkpt lat="42.52584" lon="0.19194">
        <ele>981.3</ele>
        <time>2016-07-23T09:32:07Z</time>
      </trkpt>
      <trkpt lat="42.52585" lon="0.192">
        <ele>982.3</ele>
        <time>2016-07-23T09:32:09Z</time>
      </trkpt>
      <trkpt lat="42.52586" lon="0.19206">
        <ele>983.3</ele>
        <time>2016-07-23T09:32:11Z</time>
      </trkpt>
      <trkpt lat="42.52587" lon="0.19211">
        <ele>984.4</ele>
        <time>2016-07-23T09:32:13Z</time>
      </trkpt>
      <trkpt lat="42.52586" lon="0.19217">
        <ele>985.5</ele>
        <time>2016-07-23T09:32:15Z</time>
      </trkpt>
      <trkpt lat="42.52586" lon="0.19222">
        <ele>986.7</ele>
        <time>2016-07-23T09:32:17Z</time>
      </trkpt>
      <trkpt lat="42.52587" lon="0.19228">
        <ele>987.9</ele>
        <time>2016-07-23T09:32:19Z</time>
      </trkpt>
      <trkpt lat="42.52587" lon="0.19234">
        <ele>988.9</ele>
        <time>2016-07-23T09:32:21Z</time>
      </trkpt>
      <trkpt lat="42.52588" lon="0.1924">
        <ele>989.9</ele>
        <time>2016-07-23T09:32:23Z</time>
      </trkpt>
      <trkpt lat="42.52589" lon="0.19246">
        <ele>990.9</ele>
        <time>2016-07-23T09:32:25Z</time>
      </trkpt>
      <trkpt lat="42.5259" lon="0.19251">
        <ele>991.9</ele>
        <time>2016-07-23T09:32:27Z</time>
      </trkpt>
      <trkpt lat="42.5259" lon="0.19258">
        <ele>993</ele>
        <time>2016-07-23T09:32:29Z</time>
      </trkpt>
      <trkpt lat="42.52592" lon="0.19264">
        <ele>993.8</ele>
        <time>2016-07-23T09:32:31Z</time>
      </trkpt>
      <trkpt lat="42.52594" lon="0.19269">
        <ele>994.4</ele>
        <time>2016-07-23T09:32:33Z</time>
      </trkpt>
      <trkpt lat="42.52596" lon="0.19274">
        <ele>994.9</ele>
        <time>2016-07-23T09:32:35Z</time>
      </trkpt>
      <trkpt lat="42.52598" lon="0.19279">
        <ele>995.3</ele>
        <time>2016-07-23T09:32:37Z</time>
      </trkpt>
      <trkpt lat="42.52599" lon="0.19285">
        <ele>996.1</ele>
        <time>2016-07-23T09:32:39Z</time>
      </trkpt>
      <trkpt lat="42.52599" lon="0.19291">
        <ele>997.3</ele>
        <time>2016-07-23T09:32:41Z</time>
      </trkpt>
      <trkpt lat="42.52598" lon="0.19298">
        <ele>999</ele>
        <time>2016-07-23T09:32:43Z</time>
      </trkpt>
      <trkpt lat="42.52597" lon="0.19305">
        <ele>1001.1</ele>
        <time>2016-07-23T09:32:45Z</time>
      </trkpt>
      <trkpt lat="42.52595" lon="0.19308">
        <ele>1002.2</ele>
        <time>2016-07-23T09:32:46Z</time>
      </trkpt>
      <trkpt lat="42.52593" lon="0.19314">
        <ele>1004.2</ele>
        <time>2016-07-23T09:32:48Z</time>
      </trkpt>
      <trkpt lat="42.52591" lon="0.19319">
        <ele>1006.3</ele>
        <time>2016-07-23T09:32:50Z</time>
      </trkpt>
      <trkpt lat="42.52589" lon="0.19325">
        <ele>1008.3</ele>
        <time>2016-07-23T09:32:52Z</time>
      </trkpt>
      <trkpt lat="42.52587" lon="0.19331">
        <ele>1010.3</ele>
        <time>2016-07-23T09:32:54Z</time>
      </trkpt>
      <trkpt lat="42.52585" lon="0.19337">
        <ele>1012.4</ele>
        <time>2016-07-23T09:32:56Z</time>
      </trkpt>
      <trkpt lat="42.52583" lon="0.19343">
        <ele>1014.7</ele>
        <time>2016-07-23T09:32:58Z</time>
      </trkpt>
      <trkpt lat="42.52581" lon="0.19348">
        <ele>1017</ele>
        <time>2016-07-23T09:33:00Z</time>
      </trkpt>
      <trkpt lat="42.52578" lon="0.19353">
        <ele>1019</ele>
        <time>2016-07-23T09:33:02Z</time>
      </trkpt>
      <trkpt lat="42.52576" lon="0.19356">
        <ele>1021.1</ele>
        <time>2016-07-23T09:33:04Z</time>
      </trkpt>
      <trkpt lat="42.52573" lon="0.1936">
        <ele>1023.1</ele>
        <time>2016-07-23T09:33:06Z</time>
      </trkpt>
      <trkpt lat="42.52571" lon="0.19363">
        <ele>1025</ele>
        <time>2016-07-23T09:33:08Z</time>
      </trkpt>
      <trkpt lat="42.52569" lon="0.19368">
        <ele>1027.1</ele>
        <time>2016-07-23T09:33:10Z</time>
      </trkpt>
      <trkpt lat="42.52567" lon="0.19373">
        <ele>1029.4</ele>
        <time>2016-07-23T09:33:12Z</time>
      </trkpt>
      <trkpt lat="42.52565" lon="0.19378">
        <ele>1031.7</ele>
        <time>2016-07-23T09:33:14Z</time>
      </trkpt>
      <trkpt lat="42.52564" lon="0.19383">
        <ele>1033.6</ele>
        <time>2016-07-23T09:33:16Z</time>
      </trkpt>
      <trkpt lat="42.52563" lon="0.19389">
        <ele>1035.1</ele>
        <time>2016-07-23T09:33:18Z</time>
      </trkpt>
      <trkpt lat="42.52563" lon="0.19395">
        <ele>1036.7</ele>
        <time>2016-07-23T09:33:20Z</time>
      </trkpt>
      <trkpt lat="42.52564" lon="0.19402">
        <ele>1037.9</ele>
        <time>2016-07-23T09:33:22Z</time>
      </trkpt>
      <trkpt lat="42.52565" lon="0.19408">
        <ele>1038.6</ele>
        <time>2016-07-23T09:33:24Z</time>
      </trkpt>
      <trkpt lat="42.52566" lon="0.19415">
        <ele>1039.7</ele>
        <time>2016-07-23T09:33:26Z</time>
      </trkpt>
      <trkpt lat="42.52565" lon="0.19421">
        <ele>1041.2</ele>
        <time>2016-07-23T09:33:28Z</time>
      </trkpt>
      <trkpt lat="42.52565" lon="0.19427">
        <ele>1042.8</ele>
        <time>2016-07-23T09:33:30Z</time>
      </trkpt>
      <trkpt lat="42.52565" lon="0.19434">
        <ele>1044.5</ele>
        <time>2016-07-23T09:33:32Z</time>
      </trkpt>
      <trkpt lat="42.52566" lon="0.19441">
        <ele>1045</ele>
        <time>2016-07-23T09:33:34Z</time>
      </trkpt>
      <trkpt lat="42.5257" lon="0.19446">
        <ele>1044.2</ele>
        <time>2016-07-23T09:33:36Z</time>
      </trkpt>
      <trkpt lat="42.52574" lon="0.1945">
        <ele>1042.3</ele>
        <time>2016-07-23T09:33:38Z</time>
      </trkpt>
      <trkpt lat="42.52577" lon="0.19451">
        <ele>1041</ele>
        <time>2016-07-23T09:33:39Z</time>
      </trkpt>
      <trkpt lat="42.52581" lon="0.19454">
        <ele>1039</ele>
        <time>2016-07-23T09:33:41Z</time>
      </trkpt>
      <trkpt lat="42.52585" lon="0.19455">
        <ele>1036.9</ele>
        <time>2016-07-23T09:33:43Z</time>
      </trkpt>
      <trkpt lat="42.52589" lon="0.19455">
        <ele>1034.5</ele>
        <time>2016-07-23T09:33:45Z</time>
      </trkpt>
      <trkpt lat="42.52593" lon="0.19453">
        <ele>1031.7</ele>
        <time>2016-07-23T09:33:47Z</time>
      </trkpt>
      <trkpt lat="42.52597" lon="0.1945">
        <ele>1028.6</ele>
        <time>2016-07-23T09:33:49Z</time>
      </trkpt>
      <trkpt lat="42.52601" lon="0.19447">
        <ele>1025.8</ele>
        <time>2016-07-23T09:33:51Z</time>
      </trkpt>
      <trkpt lat="42.52605" lon="0.19444">
        <ele>1022.9</ele>
        <time>2016-07-23T09:33:53Z</time>
      </trkpt>
      <trkpt lat="42.5261" lon="0.19443">
        <ele>1020</ele>
        <time>2016-07-23T09:33:55Z</time>
      </trkpt>
      <trkpt lat="42.52615" lon="0.19443">
        <ele>1017.1</ele>
        <time>2016-07-23T09:33:57Z</time>
      </trkpt>
      <trkpt lat="42.5262" lon="0.19444">
        <ele>1014.5</ele>
        <time>2016-07-23T09:33:59Z</time>
      </trkpt>
      <trkpt lat="42.52624" lon="0.19445">
        <ele>1012.2</ele>
        <time>2016-07-23T09:34:01Z</time>
      </trkpt>
      <trkpt lat="42.52628" lon="0.19447">
        <ele>1010.5</ele>
        <time>2016-07-23T09:34:03Z</time>
      </trkpt>
      <trkpt lat="42.52633" lon="0.19447">
        <ele>1009</ele>
        <time>2016-07-23T09:34:05Z</time>
      </trkpt>
      <trkpt lat="42.52638" lon="0.19448">
        <ele>1007.5</ele>
        <time>2016-07-23T09:34:07Z</time>
      </trkpt>
      <trkpt lat="42.52642" lon="0.19448">
        <ele>1006.1</ele>
        <time>2016-07-23T09:34:09Z</time>
      </trkpt>
      <trkpt lat="42.52646" lon="0.19447">
        <ele>1004.6</ele>
        <time>2016-07-23T09:34:11Z</time>
      </trkpt>
      <trkpt lat="42.52651" lon="0.19446">
        <ele>1002.8</ele>
        <time>2016-07-23T09:34:13Z</time>
      </trkpt>
      <trkpt lat="42.52655" lon="0.19445">
        <ele>1001.3</ele>
        <time>2016-07-23T09:34:15Z</time>
      </trkpt>
      <trkpt lat="42.52659" lon="0.19445">
        <ele>1000</ele>
        <time>2016-07-23T09:34:17Z</time>
      </trkpt>
      <trkpt lat="42.52663" lon="0.19447">
        <ele>999</ele>
        <time>2016-07-23T09:34:19Z</time>
      </trkpt>
      <trkpt lat="42.52667" lon="0.1945">
        <ele>998.6</ele>
        <time>2016-07-23T09:34:21Z</time>
      </trkpt>
      <trkpt lat="42.52669" lon="0.19454">
        <ele>998.9</ele>
        <time>2016-07-23T09:34:23Z</time>
      </trkpt>
      <trkpt lat="42.52671" lon="0.19459">
        <ele>1000</ele>
        <time>2016-07-23T09:34:25Z</time>
      </trkpt>
      <trkpt lat="42.52671" lon="0.19465">
        <ele>1001.9</ele>
        <time>2016-07-23T09:34:27Z</time>
      </trkpt>
      <trkpt lat="42.52671" lon="0.19471">
        <ele>1004</ele>
        <time>2016-07-23T09:34:29Z</time>
      </trkpt>
      <trkpt lat="42.5267" lon="0.19477">
        <ele>1005.9</ele>
        <time>2016-07-23T09:34:31Z</time>
      </trkpt>
      <trkpt lat="42.52669" lon="0.19481">
        <ele>1007.8</ele>
        <time>2016-07-23T09:34:33Z</time>
      </trkpt>
      <trkpt lat="42.52667" lon="0.19485">
        <ele>1009.9</ele>
        <time>2016-07-23T09:34:35Z</time>
      </trkpt>
      <trkpt lat="42.52666" lon="0.19491">
        <ele>1011.9</ele>
        <time>2016-07-23T09:34:37Z</time>
      </trkpt>
      <trkpt lat="42.52666" lon="0.19497">
        <ele>1014.1</ele>
        <time>2016-07-23T09:34:39Z</time>
      </trkpt>
      <trkpt lat="42.52664" lon="0.19501">
        <ele>1015.9</ele>
        <time>2016-07-23T09:34:41Z</time>
      </trkpt>
      <trkpt lat="42.52662" lon="0.19506">
        <ele>1018.2</ele>
        <time>2016-07-23T09:34:43Z</time>
      </trkpt>
      <trkpt lat="42.5266" lon="0.19511">
        <ele>1020.5</ele>
        <time>2016-07-23T09:34:45Z</time>
      </trkpt>
      <trkpt lat="42.5266" lon="0.19516">
        <ele>1022.6</ele>
        <time>2016-07-23T09:34:47Z</time>
      </trkpt>
      <trkpt lat="42.52659" lon="0.19522">
        <ele>1024.8</ele>
        <time>2016-07-23T09:34:49Z</time>
      </trkpt>
      <trkpt lat="42.52658" lon="0.19527">
        <ele>1026.9</ele>
        <time>2016-07-23T09:34:51Z</time>
      </trkpt>
      <trkpt lat="42.52658" lon="0.19533">
        <ele>1029</ele>
        <time>2016-07-23T09:34:53Z</time>
      </trkpt>
      <trkpt lat="42.52658" lon="0.19539">
        <ele>1031.2</ele>
        <time>2016-07-23T09:34:55Z</time>
      </trkpt>
      <trkpt lat="42.52658" lon="0.19545">
        <ele>1033.3</ele>
        <time>2016-07-23T09:34:57Z</time>
      </trkpt>
      <trkpt lat="42.52659" lon="0.19552">
        <ele>1035.5</ele>
        <time>2016-07-23T09:34:59Z</time>
      </trkpt>
      <trkpt lat="42.52659" lon="0.19558">
        <ele>1037.5</ele>
        <time>2016-07-23T09:35:01Z</time>
      </trkpt>
      <trkpt lat="42.52661" lon="0.19564">
        <ele>1039.2</ele>
        <time>2016-07-23T09:35:03Z</time>
      </trkpt>
      <trkpt lat="42.52662" lon="0.19569">
        <ele>1040.6</ele>
        <time>2016-07-23T09:35:05Z</time>
      </trkpt>
      <trkpt lat="42.52663" lon="0.19575">
        <ele>1042.1</ele>
        <time>2016-07-23T09:35:07Z</time>
      </trkpt>
      <trkpt lat="42.52664" lon="0.19581">
        <ele>1043.9</ele>
        <time>2016-07-23T09:35:09Z</time>
      </trkpt>
      <trkpt lat="42.52665" lon="0.19586">
        <ele>1045.4</ele>
        <time>2016-07-23T09:35:11Z</time>
      </trkpt>
      <trkpt lat="42.52667" lon="0.19592">
        <ele>1046.8</ele>
        <time>2016-07-23T09:35:13Z</time>
      </trkpt>
      <trkpt lat="42.52667" lon="0.19598">
        <ele>1048.7</ele>
        <time>2016-07-23T09:35:15Z</time>
      </trkpt>
      <trkpt lat="42.52667" lon="0.19604">
        <ele>1050.9</ele>
        <time>2016-07-23T09:35:17Z</time>
      </trkpt>
      <trkpt lat="42.52667" lon="0.1961">
        <ele>1052.6</ele>
        <time>2016-07-23T09:35:19Z</time>
      </trkpt>
      <trkpt lat="42.52669" lon="0.19616">
        <ele>1053.8</ele>
        <time>2016-07-23T09:35:21Z</time>
      </trkpt>
      <trkpt lat="42.52672" lon="0.19621">
        <ele>1053.9</ele>
        <time>2016-07-23T09:35:23Z</time>
      </trkpt>
      <trkpt lat="42.52676" lon="0.19625">
        <ele>1053</ele>
        <time>2016-07-23T09:35:25Z</time>
      </trkpt>
      <trkpt lat="42.52679" lon="0.19626">
        <ele>1052.1</ele>
        <time>2016-07-23T09:35:26Z</time>
      </trkpt>
      <trkpt lat="42.52682" lon="0.19627">
        <ele>1051</ele>
        <time>2016-07-23T09:35:27Z</time>
      </trkpt>
      <trkpt lat="42.52684" lon="0.19628">
        <ele>1049.7</ele>
        <time>2016-07-23T09:35:28Z</time>
      </trkpt>
      <trkpt lat="42.52687" lon="0.19629">
        <ele>1048.3</ele>
        <time>2016-07-23T09:35:29Z</time>
      </trkpt>
      <trkpt lat="42.5269" lon="0.19629">
        <ele>1046.9</ele>
        <time>2016-07-23T09:35:30Z</time>
      </trkpt>
      <trkpt lat="42.52693" lon="0.19629">
        <ele>1045.6</ele>
        <time>2016-07-23T09:35:31Z</time>
      </trkpt>
      <trkpt lat="42.52695" lon="0.1963">
        <ele>1044.3</ele>
        <time>2016-07-23T09:35:32Z</time>
      </trkpt>
      <trkpt lat="42.52698" lon="0.19631">
        <ele>1043.2</ele>
        <time>2016-07-23T09:35:33Z</time>
      </trkpt>
      <trkpt lat="42.52701" lon="0.19632">
        <ele>1042</ele>
        <time>2016-07-23T09:35:34Z</time>
      </trkpt>
      <trkpt lat="42.52706" lon="0.19634">
        <ele>1039.7</ele>
        <time>2016-07-23T09:35:36Z</time>
      </trkpt>
      <trkpt lat="42.52711" lon="0.19635">
        <ele>1037.8</ele>
        <time>2016-07-23T09:35:38Z</time>
      </trkpt>
      <trkpt lat="42.52716" lon="0.19634">
        <ele>1035.5</ele>
        <time>2016-07-23T09:35:40Z</time>
      </trkpt>
      <trkpt lat="42.52721" lon="0.19632">
        <ele>1032.4</ele>
        <time>2016-07-23T09:35:42Z</time>
      </trkpt>
      <trkpt lat="42.52723" lon="0.19629">
        <ele>1030.4</ele>
        <time>2016-07-23T09:35:43Z</time>
      </trkpt>
      <trkpt lat="42.52726" lon="0.19627">
        <ele>1028.3</ele>
        <time>2016-07-23T09:35:44Z</time>
      </trkpt>
      <trkpt lat="42.52728" lon="0.19624">
        <ele>1026.3</ele>
        <time>2016-07-23T09:35:45Z</time>
      </trkpt>
      <trkpt lat="42.52731" lon="0.19621">
        <ele>1024.3</ele>
        <time>2016-07-23T09:35:46Z</time>
      </trkpt>
      <trkpt lat="42.52734" lon="0.19618">
        <ele>1022.2</ele>
        <time>2016-07-23T09:35:47Z</time>
      </trkpt>
      <trkpt lat="42.52737" lon="0.19616">
        <ele>1020</ele>
        <time>2016-07-23T09:35:48Z</time>
      </trkpt>
      <trkpt lat="42.52741" lon="0.19615">
        <ele>1018</ele>
        <time>2016-07-23T09:35:49Z</time>
      </trkpt>
      <trkpt lat="42.52744" lon="0.19614">
        <ele>1016.2</ele>
        <time>2016-07-23T09:35:50Z</time>
      </trkpt>
      <trkpt lat="42.52748" lon="0.19614">
        <ele>1014.9</ele>
        <time>2016-07-23T09:35:51Z</time>
      </trkpt>
      <trkpt lat="42.52751" lon="0.19615">
        <ele>1013.9</ele>
        <time>2016-07-23T09:35:52Z</time>
      </trkpt>
      <trkpt lat="42.52754" lon="0.19617">
        <ele>1013.3</ele>
        <time>2016-07-23T09:35:53Z</time>
      </trkpt>
      <trkpt lat="42.52757" lon="0.19619">
        <ele>1012.8</ele>
        <time>2016-07-23T09:35:54Z</time>
      </trkpt>
      <trkpt lat="42.52759" lon="0.19622">
        <ele>1012.6</ele>
        <time>2016-07-23T09:35:55Z</time>
      </trkpt>
      <trkpt lat="42.52762" lon="0.19626">
        <ele>1013</ele>
        <time>2016-07-23T09:35:56Z</time>
      </trkpt>
      <trkpt lat="42.52764" lon="0.1963">
        <ele>1014.2</ele>
        <time>2016-07-23T09:35:57Z</time>
      </trkpt>
      <trkpt lat="42.52766" lon="0.19635">
        <ele>1015.8</ele>
        <time>2016-07-23T09:35:58Z</time>
      </trkpt>
      <trkpt lat="42.52767" lon="0.1964">
        <ele>1017.7</ele>
        <time>2016-07-23T09:35:59Z</time>
      </trkpt>
      <trkpt lat="42.52767" lon="0.19644">
        <ele>1019.7</ele>
        <time>2016-07-23T09:36:00Z</time>
      </trkpt>
      <trkpt lat="42.52768" lon="0.19649">
        <ele>1021.9</ele>
        <time>2016-07-23T09:36:01Z</time>
      </trkpt>
      <trkpt lat="42.52768" lon="0.19653">
        <ele>1024</ele>
        <time>2016-07-23T09:36:02Z</time>
      </trkpt>
      <trkpt lat="42.52768" lon="0.19657">
        <ele>1026</ele>
        <time>2016-07-23T09:36:03Z</time>
      </trkpt>
      <trkpt lat="42.52768" lon="0.19661">
        <ele>1028</ele>
        <time>2016-07-23T09:36:04Z</time>
      </trkpt>
      <trkpt lat="42.52768" lon="0.19666">
        <ele>1030</ele>
        <time>2016-07-23T09:36:05Z</time>
      </trkpt>
      <trkpt lat="42.52769" lon="0.1967">
        <ele>1031.9</ele>
        <time>2016-07-23T09:36:06Z</time>
      </trkpt>
      <trkpt lat="42.52769" lon="0.19674">
        <ele>1033.8</ele>
        <time>2016-07-23T09:36:07Z</time>
      </trkpt>
      <trkpt lat="42.5277" lon="0.19678">
        <ele>1035.5</ele>
        <time>2016-07-23T09:36:08Z</time>
      </trkpt>
      <trkpt lat="42.52772" lon="0.19682">
        <ele>1037.2</ele>
        <time>2016-07-23T09:36:09Z</time>
      </trkpt>
      <trkpt lat="42.52774" lon="0.19687">
        <ele>1038.7</ele>
        <time>2016-07-23T09:36:10Z</time>
      </trkpt>
      <trkpt lat="42.52776" lon="0.1969">
        <ele>1040</ele>
        <time>2016-07-23T09:36:11Z</time>
      </trkpt>
      <trkpt lat="42.52778" lon="0.19694">
        <ele>1041.1</ele>
        <time>2016-07-23T09:36:12Z</time>
      </trkpt>
      <trkpt lat="42.52781" lon="0.19697">
        <ele>1042.2</ele>
        <time>2016-07-23T09:36:13Z</time>
      </trkpt>
      <trkpt lat="42.52783" lon="0.197">
        <ele>1043.1</ele>
        <time>2016-07-23T09:36:14Z</time>
      </trkpt>
      <trkpt lat="42.52786" lon="0.19704">
        <ele>1044</ele>
        <time>2016-07-23T09:36:15Z</time>
      </trkpt>
      <trkpt lat="42.52788" lon="0.19707">
        <ele>1045.1</ele>
        <time>2016-07-23T09:36:16Z</time>
      </trkpt>
      <trkpt lat="42.5279" lon="0.1971">
        <ele>1046.1</ele>
        <time>2016-07-23T09:36:17Z</time>
      </trkpt>
      <trkpt lat="42.52791" lon="0.19714">
        <ele>1047.1</ele>
        <time>2016-07-23T09:36:18Z</time>
      </trkpt>
      <trkpt lat="42.52793" lon="0.19719">
        <ele>1047.8</ele>
        <time>2016-07-23T09:36:19Z</time>
      </trkpt>
      <trkpt lat="42.52795" lon="0.19723">
        <ele>1048</ele>
        <time>2016-07-23T09:36:20Z</time>
      </trkpt>
      <trkpt lat="42.52798" lon="0.19727">
        <ele>1047.7</ele>
        <time>2016-07-23T09:36:21Z</time>
      </trkpt>
      <trkpt lat="42.52801" lon="0.1973">
        <ele>1047.1</ele>
        <time>2016-07-23T09:36:22Z</time>
      </trkpt>
      <trkpt lat="42.52804" lon="0.19733">
        <ele>1046.3</ele>
        <time>2016-07-23T09:36:23Z</time>
      </trkpt>
      <trkpt lat="42.52807" lon="0.19736">
        <ele>1045.5</ele>
        <time>2016-07-23T09:36:24Z</time>
      </trkpt>
      <trkpt lat="42.5281" lon="0.19738">
        <ele>1044.7</ele>
        <time>2016-07-23T09:36:25Z</time>
      </trkpt>
      <trkpt lat="42.52814" lon="0.19741">
        <ele>1043.7</ele>
        <time>2016-07-23T09:36:26Z</time>
      </trkpt>
      <trkpt lat="42.52817" lon="0.19743">
        <ele>1042.9</ele>
        <time>2016-07-23T09:36:27Z</time>
      </trkpt>
      <trkpt lat="42.5282" lon="0.19746">
        <ele>1042.5</ele>
        <time>2016-07-23T09:36:28Z</time>
      </trkpt>
      <trkpt lat="42.52823" lon="0.19749">
        <ele>1042.1</ele>
        <time>2016-07-23T09:36:29Z</time>
      </trkpt>
      <trkpt lat="42.52825" lon="0.19752">
        <ele>1041.9</ele>
        <time>2016-07-23T09:36:30Z</time>
      </trkpt>
      <trkpt lat="42.52829" lon="0.19753">
        <ele>1040.6</ele>
        <time>2016-07-23T09:36:31Z</time>
      </trkpt>
      <trkpt lat="42.52833" lon="0.19754">
        <ele>1038.8</ele>
        <time>2016-07-23T09:36:32Z</time>
      </trkpt>
      <trkpt lat="42.52837" lon="0.19754">
        <ele>1036.6</ele>
        <time>2016-07-23T09:36:33Z</time>
      </trkpt>
      <trkpt lat="42.52841" lon="0.19753">
        <ele>1034.4</ele>
        <time>2016-07-23T09:36:34Z</time>
      </trkpt>
      <trkpt lat="42.52845" lon="0.19752">
        <ele>1032</ele>
        <time>2016-07-23T09:36:35Z</time>
      </trkpt>
      <trkpt lat="42.52848" lon="0.19751">
        <ele>1029.6</ele>
        <time>2016-07-23T09:36:36Z</time>
      </trkpt>
      <trkpt lat="42.52852" lon="0.1975">
        <ele>1027.2</ele>
        <time>2016-07-23T09:36:37Z</time>
      </trkpt>
      <trkpt lat="42.52856" lon="0.19749">
        <ele>1024.9</ele>
        <time>2016-07-23T09:36:38Z</time>
      </trkpt>
      <trkpt lat="42.5286" lon="0.19749">
        <ele>1022.6</ele>
        <time>2016-07-23T09:36:39Z</time>
      </trkpt>
      <trkpt lat="42.52864" lon="0.19748">
        <ele>1020.4</ele>
        <time>2016-07-23T09:36:40Z</time>
      </trkpt>
      <trkpt lat="42.52868" lon="0.19748">
        <ele>1018.6</ele>
        <time>2016-07-23T09:36:41Z</time>
      </trkpt>
      <trkpt lat="42.52871" lon="0.19749">
        <ele>1017.1</ele>
        <time>2016-07-23T09:36:42Z</time>
      </trkpt>
      <trkpt lat="42.52875" lon="0.19751">
        <ele>1016</ele>
        <time>2016-07-23T09:36:43Z</time>
      </trkpt>
      <trkpt lat="42.52878" lon="0.19754">
        <ele>1016.5</ele>
        <time>2016-07-23T09:36:44Z</time>
      </trkpt>
      <trkpt lat="42.52881" lon="0.19757">
        <ele>1017.4</ele>
        <time>2016-07-23T09:36:45Z</time>
      </trkpt>
      <trkpt lat="42.52884" lon="0.19761">
        <ele>1018.8</ele>
        <time>2016-07-23T09:36:46Z</time>
      </trkpt>
      <trkpt lat="42.52886" lon="0.19765">
        <ele>1020.2</ele>
        <time>2016-07-23T09:36:47Z</time>
      </trkpt>
      <trkpt lat="42.52888" lon="0.19769">
        <ele>1021.7</ele>
        <time>2016-07-23T09:36:48Z</time>
      </trkpt>
      <trkpt lat="42.52889" lon="0.19773">
        <ele>1023.2</ele>
        <time>2016-07-23T09:36:49Z</time>
      </trkpt>
      <trkpt lat="42.52891" lon="0.19777">
        <ele>1024.5</ele>
        <time>2016-07-23T09:36:50Z</time>
      </trkpt>
      <trkpt lat="42.52893" lon="0.1978">
        <ele>1025.8</ele>
        <time>2016-07-23T09:36:51Z</time>
      </trkpt>
      <trkpt lat="42.52894" lon="0.19784">
        <ele>1027.1</ele>
        <time>2016-07-23T09:36:52Z</time>
      </trkpt>
      <trkpt lat="42.52896" lon="0.19787">
        <ele>1028.4</ele>
        <time>2016-07-23T09:36:53Z</time>
      </trkpt>
      <trkpt lat="42.52898" lon="0.19791">
        <ele>1029.4</ele>
        <time>2016-07-23T09:36:54Z</time>
      </trkpt>
      <trkpt lat="42.529" lon="0.19794">
        <ele>1029.8</ele>
        <time>2016-07-23T09:36:55Z</time>
      </trkpt>
      <trkpt lat="42.52902" lon="0.19796">
        <ele>1029.6</ele>
        <time>2016-07-23T09:36:56Z</time>
      </trkpt>
      <trkpt lat="42.52905" lon="0.19798">
        <ele>1029.5</ele>
        <time>2016-07-23T09:36:57Z</time>
      </trkpt>
      <trkpt lat="42.52907" lon="0.198">
        <ele>1029.2</ele>
        <time>2016-07-23T09:36:58Z</time>
      </trkpt>
      <trkpt lat="42.5291" lon="0.19803">
        <ele>1029</ele>
        <time>2016-07-23T09:36:59Z</time>
      </trkpt>
      <trkpt lat="42.52912" lon="0.19805">
        <ele>1028.8</ele>
        <time>2016-07-23T09:37:00Z</time>
      </trkpt>
      <trkpt lat="42.52915" lon="0.19807">
        <ele>1028.6</ele>
        <time>2016-07-23T09:37:01Z</time>
      </trkpt>
      <trkpt lat="42.52917" lon="0.19809">
        <ele>1028.4</ele>
        <time>2016-07-23T09:37:02Z</time>
      </trkpt>
      <trkpt lat="42.5292" lon="0.19811">
        <ele>1028.2</ele>
        <time>2016-07-23T09:37:03Z</time>
      </trkpt>
      <trkpt lat="42.52922" lon="0.19813">
        <ele>1028.1</ele>
        <time>2016-07-23T09:37:04Z</time>
      </trkpt>
      <trkpt lat="42.52924" lon="0.19816">
        <ele>1027.9</ele>
        <time>2016-07-23T09:37:05Z</time>
      </trkpt>
      <trkpt lat="42.52927" lon="0.19817">
        <ele>1027.7</ele>
        <time>2016-07-23T09:37:06Z</time>
      </trkpt>
      <trkpt lat="42.5293" lon="0.19819">
        <ele>1027.4</ele>
        <time>2016-07-23T09:37:07Z</time>
      </trkpt>
      <trkpt lat="42.52932" lon="0.19821">
        <ele>1027.2</ele>
        <time>2016-07-23T09:37:08Z</time>
      </trkpt>
      <trkpt lat="42.52934" lon="0.19823">
        <ele>1027.1</ele>
        <time>2016-07-23T09:37:09Z</time>
      </trkpt>
      <trkpt lat="42.52937" lon="0.19829">
        <ele>1027.7</ele>
        <time>2016-07-23T09:37:11Z</time>
      </trkpt>
      <trkpt lat="42.52938" lon="0.19836">
        <ele>1029</ele>
        <time>2016-07-23T09:37:13Z</time>
      </trkpt>
      <trkpt lat="42.52937" lon="0.1984">
        <ele>1029.9</ele>
        <time>2016-07-23T09:37:14Z</time>
      </trkpt>
      <trkpt lat="42.52935" lon="0.19843">
        <ele>1031.1</ele>
        <time>2016-07-23T09:37:15Z</time>
      </trkpt>
      <trkpt lat="42.52932" lon="0.19846">
        <ele>1032.4</ele>
        <time>2016-07-23T09:37:16Z</time>
      </trkpt>
      <trkpt lat="42.52929" lon="0.19848">
        <ele>1033.7</ele>
        <time>2016-07-23T09:37:17Z</time>
      </trkpt>
      <trkpt lat="42.52924" lon="0.1985">
        <ele>1035.2</ele>
        <time>2016-07-23T09:37:18Z</time>
      </trkpt>
      <trkpt lat="42.52918" lon="0.19851">
        <ele>1036.7</ele>
        <time>2016-07-23T09:37:19Z</time>
      </trkpt>
      <trkpt lat="42.52913" lon="0.19853">
        <ele>1038.4</ele>
        <time>2016-07-23T09:37:20Z</time>
      </trkpt>
      <trkpt lat="42.52906" lon="0.19855">
        <ele>1040.2</ele>
        <time>2016-07-23T09:37:21Z</time>
      </trkpt>
      <trkpt lat="42.529" lon="0.19856">
        <ele>1041.9</ele>
        <time>2016-07-23T09:37:22Z</time>
      </trkpt>
      <trkpt lat="42.52894" lon="0.19856">
        <ele>1043.4</ele>
        <time>2016-07-23T09:37:23Z</time>
      </trkpt>
      <trkpt lat="42.52887" lon="0.19857">
        <ele>1045.1</ele>
        <time>2016-07-23T09:37:24Z</time>
      </trkpt>
      <trkpt lat="42.5288" lon="0.19858">
        <ele>1046.9</ele>
        <time>2016-07-23T09:37:25Z</time>
      </trkpt>
      <trkpt lat="42.52873" lon="0.19861">
        <ele>1048.9</ele>
        <time>2016-07-23T09:37:26Z</time>
      </trkpt>
      <trkpt lat="42.52866" lon="0.19864">
        <ele>1051</ele>
        <time>2016-07-23T09:37:27Z</time>
      </trkpt>
      <trkpt lat="42.52859" lon="0.19868">
        <ele>1052.8</ele>
        <time>2016-07-23T09:37:28Z</time>
      </trkpt>
      <trkpt lat="42.52853" lon="0.19872">
        <ele>1054.5</ele>
        <time>2016-07-23T09:37:29Z</time>
      </trkpt>
      <trkpt lat="42.52848" lon="0.19879">
        <ele>1054</ele>
        <time>2016-07-23T09:37:30Z</time>
      </trkpt>
      <trkpt lat="42.52842" lon="0.19883">
        <ele>1052.9</ele>
        <time>2016-07-23T09:37:31Z</time>
      </trkpt>
      <trkpt lat="42.52836" lon="0.19888">
        <ele>1051.7</ele>
        <time>2016-07-23T09:37:32Z</time>
      </trkpt>
      <trkpt lat="42.5283" lon="0.19892">
        <ele>1050.8</ele>
        <time>2016-07-23T09:37:33Z</time>
      </trkpt>
      <trkpt lat="42.52826" lon="0.19892">
        <ele>1051.6</ele>
        <time>2016-07-23T09:37:34Z</time>
      </trkpt>
      <trkpt lat="42.52818" lon="0.19894">
        <ele>1052.1</ele>
        <time>2016-07-23T09:37:35Z</time>
      </trkpt>
      <trkpt lat="42.52814" lon="0.19893">
        <ele>1053.2</ele>
        <time>2016-07-23T09:37:36Z</time>
      </trkpt>
      <trkpt lat="42.52807" lon="0.19893">
        <ele>1054.4</ele>
        <time>2016-07-23T09:37:37Z</time>
      </trkpt>
      <trkpt lat="42.52801" lon="0.19892">
        <ele>1056</ele>
        <time>2016-07-23T09:37:38Z</time>
      </trkpt>
      <trkpt lat="42.52794" lon="0.19892">
        <ele>1057</ele>
        <time>2016-07-23T09:37:39Z</time>
      </trkpt>
      <trkpt lat="42.52787" lon="0.19891">
        <ele>1059.6</ele>
        <time>2016-07-23T09:37:40Z</time>
      </trkpt>
      <trkpt lat="42.52781" lon="0.19891">
        <ele>1062</ele>
        <time>2016-07-23T09:37:41Z</time>
      </trkpt>
      <trkpt lat="42.52774" lon="0.19891">
        <ele>1065</ele>
        <time>2016-07-23T09:37:42Z</time>
      </trkpt>
      <trkpt lat="42.52767" lon="0.19892">
        <ele>1067</ele>
        <time>2016-07-23T09:37:43Z</time>
      </trkpt>
      <trkpt lat="42.5276" lon="0.19895">
        <ele>1068.3</ele>
        <time>2016-07-23T09:37:44Z</time>
      </trkpt>
      <trkpt lat="42.52753" lon="0.19899">
        <ele>1069.3</ele>
        <time>2016-07-23T09:37:45Z</time>
      </trkpt>
      <trkpt lat="42.52746" lon="0.19903">
        <ele>1070.2</ele>
        <time>2016-07-23T09:37:46Z</time>
      </trkpt>
      <trkpt lat="42.5274" lon="0.19906">
        <ele>1070.9</ele>
        <time>2016-07-23T09:37:47Z</time>
      </trkpt>
      <trkpt lat="42.52734" lon="0.19911">
        <ele>1071.1</ele>
        <time>2016-07-23T09:37:48Z</time>
      </trkpt>
      <trkpt lat="42.5273" lon="0.19913">
        <ele>1072.1</ele>
        <time>2016-07-23T09:37:49Z</time>
      </trkpt>
      <trkpt lat="42.52725" lon="0.19919">
        <ele>1071</ele>
        <time>2016-07-23T09:37:50Z</time>
      </trkpt>
      <trkpt lat="42.52721" lon="0.19927">
        <ele>1069.5</ele>
        <time>2016-07-23T09:37:52Z</time>
      </trkpt>
      <trkpt lat="42.52718" lon="0.19933">
        <ele>1067.6</ele>
        <time>2016-07-23T09:37:53Z</time>
      </trkpt>
      <trkpt lat="42.52715" lon="0.19942">
        <ele>1064.8</ele>
        <time>2016-07-23T09:37:54Z</time>
      </trkpt>
      <trkpt lat="42.52716" lon="0.19949">
        <ele>1061.1</ele>
        <time>2016-07-23T09:37:55Z</time>
      </trkpt>
      <trkpt lat="42.52715" lon="0.19956">
        <ele>1058.3</ele>
        <time>2016-07-23T09:37:56Z</time>
      </trkpt>
      <trkpt lat="42.52711" lon="0.19963">
        <ele>1057</ele>
        <time>2016-07-23T09:37:57Z</time>
      </trkpt>
      <trkpt lat="42.52707" lon="0.1997">
        <ele>1054.9</ele>
        <time>2016-07-23T09:37:58Z</time>
      </trkpt>
      <trkpt lat="42.52702" lon="0.19977">
        <ele>1052.7</ele>
        <time>2016-07-23T09:37:59Z</time>
      </trkpt>
      <trkpt lat="42.52698" lon="0.19984">
        <ele>1049.7</ele>
        <time>2016-07-23T09:38:00Z</time>
      </trkpt>
      <trkpt lat="42.52692" lon="0.19992">
        <ele>1046.7</ele>
        <time>2016-07-23T09:38:01Z</time>
      </trkpt>
      <trkpt lat="42.52688" lon="0.19999">
        <ele>1043.6</ele>
        <time>2016-07-23T09:38:02Z</time>
      </trkpt>
      <trkpt lat="42.52688" lon="0.20008">
        <ele>1039.6</ele>
        <time>2016-07-23T09:38:03Z</time>
      </trkpt>
      <trkpt lat="42.52686" lon="0.20015">
        <ele>1036.3</ele>
        <time>2016-07-23T09:38:04Z</time>
      </trkpt>
      <trkpt lat="42.52681" lon="0.20021">
        <ele>1033.8</ele>
        <time>2016-07-23T09:38:05Z</time>
      </trkpt>
      <trkpt lat="42.52677" lon="0.20026">
        <ele>1031.5</ele>
        <time>2016-07-23T09:38:06Z</time>
      </trkpt>
      <trkpt lat="42.52671" lon="0.2003">
        <ele>1029.9</ele>
        <time>2016-07-23T09:38:07Z</time>
      </trkpt>
      <trkpt lat="42.52668" lon="0.2003">
        <ele>1029.8</ele>
        <time>2016-07-23T09:38:08Z</time>
      </trkpt>
      <trkpt lat="42.52664" lon="0.20028">
        <ele>1031.5</ele>
        <time>2016-07-23T09:38:09Z</time>
      </trkpt>
      <trkpt lat="42.5266" lon="0.20026">
        <ele>1032.6</ele>
        <time>2016-07-23T09:38:10Z</time>
      </trkpt>
      <trkpt lat="42.52656" lon="0.20023">
        <ele>1034.9</ele>
        <time>2016-07-23T09:38:11Z</time>
      </trkpt>
      <trkpt lat="42.52652" lon="0.20019">
        <ele>1037.2</ele>
        <time>2016-07-23T09:38:12Z</time>
      </trkpt>
      <trkpt lat="42.52649" lon="0.20014">
        <ele>1040.3</ele>
        <time>2016-07-23T09:38:13Z</time>
      </trkpt>
      <trkpt lat="42.52645" lon="0.20009">
        <ele>1043.2</ele>
        <time>2016-07-23T09:38:14Z</time>
      </trkpt>
      <trkpt lat="42.52642" lon="0.20005">
        <ele>1045.8</ele>
        <time>2016-07-23T09:38:15Z</time>
      </trkpt>
      <trkpt lat="42.52637" lon="0.20002">
        <ele>1048</ele>
        <time>2016-07-23T09:38:16Z</time>
      </trkpt>
      <trkpt lat="42.52631" lon="0.20002">
        <ele>1048.8</ele>
        <time>2016-07-23T09:38:17Z</time>
      </trkpt>
      <trkpt lat="42.52625" lon="0.20003">
        <ele>1048.9</ele>
        <time>2016-07-23T09:38:18Z</time>
      </trkpt>
      <trkpt lat="42.52618" lon="0.20005">
        <ele>1048.6</ele>
        <time>2016-07-23T09:38:19Z</time>
      </trkpt>
      <trkpt lat="42.52614" lon="0.20008">
        <ele>1047.2</ele>
        <time>2016-07-23T09:38:20Z</time>
      </trkpt>
      <trkpt lat="42.5261" lon="0.20012">
        <ele>1045.5</ele>
        <time>2016-07-23T09:38:21Z</time>
      </trkpt>
      <trkpt lat="42.52605" lon="0.20014">
        <ele>1044.7</ele>
        <time>2016-07-23T09:38:22Z</time>
      </trkpt>
      <trkpt lat="42.52597" lon="0.20015">
        <ele>1044.9</ele>
        <time>2016-07-23T09:38:23Z</time>
      </trkpt>
      <trkpt lat="42.5259" lon="0.20016">
        <ele>1044.9</ele>
        <time>2016-07-23T09:38:24Z</time>
      </trkpt>
      <trkpt lat="42.52584" lon="0.20017">
        <ele>1045</ele>
        <time>2016-07-23T09:38:25Z</time>
      </trkpt>
      <trkpt lat="42.52577" lon="0.20021">
        <ele>1043.4</ele>
        <time>2016-07-23T09:38:26Z</time>
      </trkpt>
      <trkpt lat="42.52571" lon="0.20025">
        <ele>1041.6</ele>
        <time>2016-07-23T09:38:27Z</time>
      </trkpt>
      <trkpt lat="42.52565" lon="0.2003">
        <ele>1038.9</ele>
        <time>2016-07-23T09:38:28Z</time>
      </trkpt>
      <trkpt lat="42.52559" lon="0.20033">
        <ele>1037.5</ele>
        <time>2016-07-23T09:38:29Z</time>
      </trkpt>
      <trkpt lat="42.52556" lon="0.20035">
        <ele>1036.5</ele>
        <time>2016-07-23T09:38:30Z</time>
      </trkpt>
      <trkpt lat="42.52551" lon="0.20035">
        <ele>1036.5</ele>
        <time>2016-07-23T09:38:31Z</time>
      </trkpt>
      <trkpt lat="42.52546" lon="0.20036">
        <ele>1036.5</ele>
        <time>2016-07-23T09:38:32Z</time>
      </trkpt>
      <trkpt lat="42.52538" lon="0.20037">
        <ele>1037.5</ele>
        <time>2016-07-23T09:38:33Z</time>
      </trkpt>
      <trkpt lat="42.52532" lon="0.20037">
        <ele>1040.5</ele>
        <time>2016-07-23T09:38:34Z</time>
      </trkpt>
      <trkpt lat="42.52527" lon="0.20036">
        <ele>1043.6</ele>
        <time>2016-07-23T09:38:35Z</time>
      </trkpt>
      <trkpt lat="42.52522" lon="0.20032">
        <ele>1048</ele>
        <time>2016-07-23T09:38:36Z</time>
      </trkpt>
      <trkpt lat="42.52517" lon="0.20028">
        <ele>1052.4</ele>
        <time>2016-07-23T09:38:37Z</time>
      </trkpt>
      <trkpt lat="42.52514" lon="0.20026">
        <ele>1055.7</ele>
        <time>2016-07-23T09:38:38Z</time>
      </trkpt>
      <trkpt lat="42.5251" lon="0.20025">
        <ele>1058.1</ele>
        <time>2016-07-23T09:38:39Z</time>
      </trkpt>
      <trkpt lat="42.52505" lon="0.20027">
        <ele>1058.7</ele>
        <time>2016-07-23T09:38:40Z</time>
      </trkpt>
      <trkpt lat="42.525" lon="0.20032">
        <ele>1057.5</ele>
        <time>2016-07-23T09:38:41Z</time>
      </trkpt>
      <trkpt lat="42.52497" lon="0.20038">
        <ele>1055.5</ele>
        <time>2016-07-23T09:38:42Z</time>
      </trkpt>
      <trkpt lat="42.52495" lon="0.20044">
        <ele>1052.8</ele>
        <time>2016-07-23T09:38:43Z</time>
      </trkpt>
      <trkpt lat="42.52493" lon="0.2005">
        <ele>1050.2</ele>
        <time>2016-07-23T09:38:44Z</time>
      </trkpt>
      <trkpt lat="42.52491" lon="0.20057">
        <ele>1047.5</ele>
        <time>2016-07-23T09:38:45Z</time>
      </trkpt>
      <trkpt lat="42.52489" lon="0.20064">
        <ele>1044.6</ele>
        <time>2016-07-23T09:38:46Z</time>
      </trkpt>
      <trkpt lat="42.52485" lon="0.20071">
        <ele>1042.4</ele>
        <time>2016-07-23T09:38:47Z</time>
      </trkpt>
      <trkpt lat="42.52483" lon="0.20078">
        <ele>1039.7</ele>
        <time>2016-07-23T09:38:48Z</time>
      </trkpt>
      <trkpt lat="42.52481" lon="0.20085">
        <ele>1036.7</ele>
        <time>2016-07-23T09:38:49Z</time>
      </trkpt>
      <trkpt lat="42.52478" lon="0.20093">
        <ele>1033.9</ele>
        <time>2016-07-23T09:38:50Z</time>
      </trkpt>
      <trkpt lat="42.52476" lon="0.201">
        <ele>1031</ele>
        <time>2016-07-23T09:38:51Z</time>
      </trkpt>
      <trkpt lat="42.52472" lon="0.20106">
        <ele>1029.2</ele>
        <time>2016-07-23T09:38:52Z</time>
      </trkpt>
      <trkpt lat="42.52467" lon="0.20111">
        <ele>1028.3</ele>
        <time>2016-07-23T09:38:53Z</time>
      </trkpt>
      <trkpt lat="42.52463" lon="0.20118">
        <ele>1026.1</ele>
        <time>2016-07-23T09:38:54Z</time>
      </trkpt>
      <trkpt lat="42.52458" lon="0.20125">
        <ele>1024.1</ele>
        <time>2016-07-23T09:38:55Z</time>
      </trkpt>
      <trkpt lat="42.52453" lon="0.20131">
        <ele>1021.9</ele>
        <time>2016-07-23T09:38:56Z</time>
      </trkpt>
      <trkpt lat="42.52449" lon="0.20135">
        <ele>1020.4</ele>
        <time>2016-07-23T09:38:57Z</time>
      </trkpt>
      <trkpt lat="42.52444" lon="0.20137">
        <ele>1020.2</ele>
        <time>2016-07-23T09:38:58Z</time>
      </trkpt>
      <trkpt lat="42.52438" lon="0.20137">
        <ele>1020.7</ele>
        <time>2016-07-23T09:38:59Z</time>
      </trkpt>
      <trkpt lat="42.52433" lon="0.20136">
        <ele>1021.9</ele>
        <time>2016-07-23T09:39:00Z</time>
      </trkpt>
      <trkpt lat="42.52427" lon="0.20135">
        <ele>1023.3</ele>
        <time>2016-07-23T09:39:01Z</time>
      </trkpt>
      <trkpt lat="42.52421" lon="0.20133">
        <ele>1024.7</ele>
        <time>2016-07-23T09:39:02Z</time>
      </trkpt>
      <trkpt lat="42.52416" lon="0.20131">
        <ele>1026.3</ele>
        <time>2016-07-23T09:39:03Z</time>
      </trkpt>
      <trkpt lat="42.5241" lon="0.20133">
        <ele>1026.2</ele>
        <time>2016-07-23T09:39:04Z</time>
      </trkpt>
      <trkpt lat="42.52405" lon="0.20136">
        <ele>1025.6</ele>
        <time>2016-07-23T09:39:05Z</time>
      </trkpt>
      <trkpt lat="42.52401" lon="0.20142">
        <ele>1023.5</ele>
        <time>2016-07-23T09:39:06Z</time>
      </trkpt>
      <trkpt lat="42.52399" lon="0.20148">
        <ele>1021.6</ele>
        <time>2016-07-23T09:39:07Z</time>
      </trkpt>
      <trkpt lat="42.52397" lon="0.20153">
        <ele>1020.2</ele>
        <time>2016-07-23T09:39:08Z</time>
      </trkpt>
      <trkpt lat="42.52393" lon="0.20157">
        <ele>1019.3</ele>
        <time>2016-07-23T09:39:09Z</time>
      </trkpt>
      <trkpt lat="42.52389" lon="0.20159">
        <ele>1019.1</ele>
        <time>2016-07-23T09:39:10Z</time>
      </trkpt>
      <trkpt lat="42.52383" lon="0.20162">
        <ele>1019.2</ele>
        <time>2016-07-23T09:39:11Z</time>
      </trkpt>
      <trkpt lat="42.52377" lon="0.20163">
        <ele>1019.8</ele>
        <time>2016-07-23T09:39:12Z</time>
      </trkpt>
      <trkpt lat="42.52372" lon="0.20164">
        <ele>1020.8</ele>
        <time>2016-07-23T09:39:13Z</time>
      </trkpt>
      <trkpt lat="42.52366" lon="0.20165">
        <ele>1022.4</ele>
        <time>2016-07-23T09:39:14Z</time>
      </trkpt>
      <trkpt lat="42.52359" lon="0.20167">
        <ele>1023.9</ele>
        <time>2016-07-23T09:39:15Z</time>
      </trkpt>
      <trkpt lat="42.52353" lon="0.2017">
        <ele>1025</ele>
        <time>2016-07-23T09:39:16Z</time>
      </trkpt>
      <trkpt lat="42.52348" lon="0.20173">
        <ele>1025.3</ele>
        <time>2016-07-23T09:39:17Z</time>
      </trkpt>
      <trkpt lat="42.52346" lon="0.20179">
        <ele>1024.5</ele>
        <time>2016-07-23T09:39:18Z</time>
      </trkpt>
      <trkpt lat="42.52342" lon="0.20183">
        <ele>1024.2</ele>
        <time>2016-07-23T09:39:19Z</time>
      </trkpt>
      <trkpt lat="42.52342" lon="0.2019">
        <ele>1022.2</ele>
        <time>2016-07-23T09:39:21Z</time>
      </trkpt>
      <trkpt lat="42.52345" lon="0.20194">
        <ele>1019.9</ele>
        <time>2016-07-23T09:39:23Z</time>
      </trkpt>
      <trkpt lat="42.52347" lon="0.20197">
        <ele>1018.5</ele>
        <time>2016-07-23T09:39:24Z</time>
      </trkpt>
      <trkpt lat="42.52351" lon="0.202">
        <ele>1016.3</ele>
        <time>2016-07-23T09:39:26Z</time>
      </trkpt>
      <trkpt lat="42.52355" lon="0.20202">
        <ele>1013.9</ele>
        <time>2016-07-23T09:39:28Z</time>
      </trkpt>
      <trkpt lat="42.52357" lon="0.20205">
        <ele>1012.4</ele>
        <time>2016-07-23T09:39:29Z</time>
      </trkpt>
      <trkpt lat="42.5236" lon="0.20208">
        <ele>1010.6</ele>
        <time>2016-07-23T09:39:30Z</time>
      </trkpt>
      <trkpt lat="42.52362" lon="0.20211">
        <ele>1009.9</ele>
        <time>2016-07-23T09:39:31Z</time>
      </trkpt>
      <trkpt lat="42.52365" lon="0.20214">
        <ele>1009.3</ele>
        <time>2016-07-23T09:39:32Z</time>
      </trkpt>
      <trkpt lat="42.52368" lon="0.20218">
        <ele>1008.8</ele>
        <time>2016-07-23T09:39:33Z</time>
      </trkpt>
      <trkpt lat="42.52371" lon="0.20221">
        <ele>1008.2</ele>
        <time>2016-07-23T09:39:34Z</time>
      </trkpt>
      <trkpt lat="42.52374" lon="0.20225">
        <ele>1007.5</ele>
        <time>2016-07-23T09:39:35Z</time>
      </trkpt>
      <trkpt lat="42.52378" lon="0.20228">
        <ele>1006.8</ele>
        <time>2016-07-23T09:39:36Z</time>
      </trkpt>
      <trkpt lat="42.52381" lon="0.20232">
        <ele>1006.1</ele>
        <time>2016-07-23T09:39:37Z</time>
      </trkpt>
      <trkpt lat="42.52385" lon="0.20236">
        <ele>1005.3</ele>
        <time>2016-07-23T09:39:38Z</time>
      </trkpt>
      <trkpt lat="42.5239" lon="0.20239">
        <ele>1004.2</ele>
        <time>2016-07-23T09:39:39Z</time>
      </trkpt>
      <trkpt lat="42.52395" lon="0.20239">
        <ele>1002.5</ele>
        <time>2016-07-23T09:39:40Z</time>
      </trkpt>
      <trkpt lat="42.52401" lon="0.2024">
        <ele>1000.6</ele>
        <time>2016-07-23T09:39:41Z</time>
      </trkpt>
      <trkpt lat="42.52405" lon="0.20242">
        <ele>999.3</ele>
        <time>2016-07-23T09:39:42Z</time>
      </trkpt>
      <trkpt lat="42.5241" lon="0.20246">
        <ele>997.9</ele>
        <time>2016-07-23T09:39:43Z</time>
      </trkpt>
      <trkpt lat="42.52414" lon="0.20251">
        <ele>996.7</ele>
        <time>2016-07-23T09:39:44Z</time>
      </trkpt>
      <trkpt lat="42.52418" lon="0.20257">
        <ele>995.5</ele>
        <time>2016-07-23T09:39:45Z</time>
      </trkpt>
      <trkpt lat="42.52421" lon="0.20263">
        <ele>994.6</ele>
        <time>2016-07-23T09:39:46Z</time>
      </trkpt>
      <trkpt lat="42.52424" lon="0.20269">
        <ele>993.7</ele>
        <time>2016-07-23T09:39:47Z</time>
      </trkpt>
      <trkpt lat="42.52428" lon="0.20276">
        <ele>992.1</ele>
        <time>2016-07-23T09:39:48Z</time>
      </trkpt>
      <trkpt lat="42.52434" lon="0.20282">
        <ele>989.9</ele>
        <time>2016-07-23T09:39:49Z</time>
      </trkpt>
      <trkpt lat="42.52439" lon="0.20288">
        <ele>987.8</ele>
        <time>2016-07-23T09:39:50Z</time>
      </trkpt>
      <trkpt lat="42.52442" lon="0.20293">
        <ele>986.5</ele>
        <time>2016-07-23T09:39:51Z</time>
      </trkpt>
      <trkpt lat="42.52448" lon="0.20296">
        <ele>985.5</ele>
        <time>2016-07-23T09:39:52Z</time>
      </trkpt>
      <trkpt lat="42.52453" lon="0.20297">
        <ele>983.6</ele>
        <time>2016-07-23T09:39:53Z</time>
      </trkpt>
      <trkpt lat="42.52458" lon="0.20296">
        <ele>980.8</ele>
        <time>2016-07-23T09:39:54Z</time>
      </trkpt>
      <trkpt lat="42.52464" lon="0.20295">
        <ele>978.5</ele>
        <time>2016-07-23T09:39:55Z</time>
      </trkpt>
      <trkpt lat="42.5247" lon="0.20294">
        <ele>976</ele>
        <time>2016-07-23T09:39:56Z</time>
      </trkpt>
      <trkpt lat="42.52477" lon="0.20293">
        <ele>973.3</ele>
        <time>2016-07-23T09:39:57Z</time>
      </trkpt>
      <trkpt lat="42.52484" lon="0.20293">
        <ele>971.3</ele>
        <time>2016-07-23T09:39:58Z</time>
      </trkpt>
      <trkpt lat="42.5249" lon="0.20295">
        <ele>970.2</ele>
        <time>2016-07-23T09:39:59Z</time>
      </trkpt>
      <trkpt lat="42.52497" lon="0.20296">
        <ele>968.2</ele>
        <time>2016-07-23T09:40:00Z</time>
      </trkpt>
      <trkpt lat="42.52505" lon="0.20296">
        <ele>965.7</ele>
        <time>2016-07-23T09:40:01Z</time>
      </trkpt>
      <trkpt lat="42.52512" lon="0.20295">
        <ele>962.9</ele>
        <time>2016-07-23T09:40:02Z</time>
      </trkpt>
      <trkpt lat="42.52518" lon="0.20293">
        <ele>960.2</ele>
        <time>2016-07-23T09:40:03Z</time>
      </trkpt>
      <trkpt lat="42.52524" lon="0.20291">
        <ele>957.6</ele>
        <time>2016-07-23T09:40:04Z</time>
      </trkpt>
      <trkpt lat="42.52528" lon="0.2029">
        <ele>956.6</ele>
        <time>2016-07-23T09:40:05Z</time>
      </trkpt>
      <trkpt lat="42.5253" lon="0.20293">
        <ele>956.5</ele>
        <time>2016-07-23T09:40:06Z</time>
      </trkpt>
      <trkpt lat="42.52536" lon="0.20294">
        <ele>954.9</ele>
        <time>2016-07-23T09:40:07Z</time>
      </trkpt>
      <trkpt lat="42.5254" lon="0.20297">
        <ele>954.7</ele>
        <time>2016-07-23T09:40:08Z</time>
      </trkpt>
      <trkpt lat="42.52542" lon="0.20301">
        <ele>955.7</ele>
        <time>2016-07-23T09:40:09Z</time>
      </trkpt>
      <trkpt lat="42.52546" lon="0.20306">
        <ele>956.7</ele>
        <time>2016-07-23T09:40:10Z</time>
      </trkpt>
      <trkpt lat="42.52548" lon="0.20314">
        <ele>959.1</ele>
        <time>2016-07-23T09:40:11Z</time>
      </trkpt>
      <trkpt lat="42.52551" lon="0.20321">
        <ele>960.7</ele>
        <time>2016-07-23T09:40:12Z</time>
      </trkpt>
      <trkpt lat="42.52554" lon="0.20327">
        <ele>962.3</ele>
        <time>2016-07-23T09:40:13Z</time>
      </trkpt>
      <trkpt lat="42.52557" lon="0.20332">
        <ele>963.2</ele>
        <time>2016-07-23T09:40:14Z</time>
      </trkpt>
      <trkpt lat="42.5256" lon="0.2034">
        <ele>965.3</ele>
        <time>2016-07-23T09:40:15Z</time>
      </trkpt>
      <trkpt lat="42.52562" lon="0.20348">
        <ele>967.5</ele>
        <time>2016-07-23T09:40:16Z</time>
      </trkpt>
      <trkpt lat="42.52567" lon="0.20355">
        <ele>968.7</ele>
        <time>2016-07-23T09:40:17Z</time>
      </trkpt>
      <trkpt lat="42.52573" lon="0.20359">
        <ele>967.4</ele>
        <time>2016-07-23T09:40:18Z</time>
      </trkpt>
      <trkpt lat="42.52579" lon="0.20363">
        <ele>967</ele>
        <time>2016-07-23T09:40:19Z</time>
      </trkpt>
      <trkpt lat="42.52584" lon="0.20365">
        <ele>965.4</ele>
        <time>2016-07-23T09:40:20Z</time>
      </trkpt>
      <trkpt lat="42.52589" lon="0.20372">
        <ele>966.2</ele>
        <time>2016-07-23T09:40:21Z</time>
      </trkpt>
      <trkpt lat="42.52595" lon="0.20378">
        <ele>966.4</ele>
        <time>2016-07-23T09:40:22Z</time>
      </trkpt>
      <trkpt lat="42.52599" lon="0.20386">
        <ele>969.5</ele>
        <time>2016-07-23T09:40:23Z</time>
      </trkpt>
      <trkpt lat="42.52601" lon="0.20391">
        <ele>971.4</ele>
        <time>2016-07-23T09:40:24Z</time>
      </trkpt>
      <trkpt lat="42.52606" lon="0.20397">
        <ele>972.7</ele>
        <time>2016-07-23T09:40:25Z</time>
      </trkpt>
      <trkpt lat="42.5261" lon="0.20403">
        <ele>974.1</ele>
        <time>2016-07-23T09:40:26Z</time>
      </trkpt>
      <trkpt lat="42.52614" lon="0.2041">
        <ele>975.7</ele>
        <time>2016-07-23T09:40:27Z</time>
      </trkpt>
      <trkpt lat="42.52619" lon="0.20414">
        <ele>976</ele>
        <time>2016-07-23T09:40:28Z</time>
      </trkpt>
      <trkpt lat="42.52623" lon="0.20418">
        <ele>976.1</ele>
        <time>2016-07-23T09:40:29Z</time>
      </trkpt>
      <trkpt lat="42.52631" lon="0.2042">
        <ele>972.6</ele>
        <time>2016-07-23T09:40:30Z</time>
      </trkpt>
      <trkpt lat="42.52635" lon="0.20423">
        <ele>972.1</ele>
        <time>2016-07-23T09:40:31Z</time>
      </trkpt>
      <trkpt lat="42.52639" lon="0.20428">
        <ele>972.2</ele>
        <time>2016-07-23T09:40:32Z</time>
      </trkpt>
      <trkpt lat="42.52641" lon="0.20432">
        <ele>972.7</ele>
        <time>2016-07-23T09:40:33Z</time>
      </trkpt>
      <trkpt lat="42.52643" lon="0.20436">
        <ele>973.5</ele>
        <time>2016-07-23T09:40:34Z</time>
      </trkpt>
      <trkpt lat="42.52646" lon="0.20442">
        <ele>974.8</ele>
        <time>2016-07-23T09:40:35Z</time>
      </trkpt>
      <trkpt lat="42.52648" lon="0.20446">
        <ele>975.8</ele>
        <time>2016-07-23T09:40:36Z</time>
      </trkpt>
      <trkpt lat="42.52651" lon="0.2045">
        <ele>976.1</ele>
        <time>2016-07-23T09:40:37Z</time>
      </trkpt>
      <trkpt lat="42.52652" lon="0.20454">
        <ele>977.4</ele>
        <time>2016-07-23T09:40:38Z</time>
      </trkpt>
      <trkpt lat="42.52653" lon="0.20458">
        <ele>978.7</ele>
        <time>2016-07-23T09:40:39Z</time>
      </trkpt>
      <trkpt lat="42.52654" lon="0.20461">
        <ele>980</ele>
        <time>2016-07-23T09:40:40Z</time>
      </trkpt>
      <trkpt lat="42.52655" lon="0.20467">
        <ele>981.9</ele>
        <time>2016-07-23T09:40:41Z</time>
      </trkpt>
      <trkpt lat="42.52655" lon="0.20472">
        <ele>983.4</ele>
        <time>2016-07-23T09:40:42Z</time>
      </trkpt>
      <trkpt lat="42.52656" lon="0.20475">
        <ele>984.9</ele>
        <time>2016-07-23T09:40:43Z</time>
      </trkpt>
      <trkpt lat="42.52656" lon="0.2048">
        <ele>986.3</ele>
        <time>2016-07-23T09:40:44Z</time>
      </trkpt>
      <trkpt lat="42.52658" lon="0.20484">
        <ele>987.4</ele>
        <time>2016-07-23T09:40:45Z</time>
      </trkpt>
      <trkpt lat="42.52659" lon="0.20488">
        <ele>988.1</ele>
        <time>2016-07-23T09:40:46Z</time>
      </trkpt>
      <trkpt lat="42.52662" lon="0.20491">
        <ele>988.1</ele>
        <time>2016-07-23T09:40:47Z</time>
      </trkpt>
      <trkpt lat="42.52664" lon="0.20494">
        <ele>987.8</ele>
        <time>2016-07-23T09:40:48Z</time>
      </trkpt>
      <trkpt lat="42.52667" lon="0.20495">
        <ele>986.7</ele>
        <time>2016-07-23T09:40:49Z</time>
      </trkpt>
      <trkpt lat="42.5267" lon="0.20496">
        <ele>985.1</ele>
        <time>2016-07-23T09:40:50Z</time>
      </trkpt>
      <trkpt lat="42.52673" lon="0.20496">
        <ele>983.3</ele>
        <time>2016-07-23T09:40:51Z</time>
      </trkpt>
      <trkpt lat="42.52676" lon="0.20496">
        <ele>981.4</ele>
        <time>2016-07-23T09:40:52Z</time>
      </trkpt>
      <trkpt lat="42.52679" lon="0.20495">
        <ele>979.3</ele>
        <time>2016-07-23T09:40:53Z</time>
      </trkpt>
      <trkpt lat="42.52683" lon="0.20495">
        <ele>976.9</ele>
        <time>2016-07-23T09:40:54Z</time>
      </trkpt>
      <trkpt lat="42.52686" lon="0.20494">
        <ele>974.6</ele>
        <time>2016-07-23T09:40:55Z</time>
      </trkpt>
      <trkpt lat="42.52689" lon="0.20493">
        <ele>972.4</ele>
        <time>2016-07-23T09:40:56Z</time>
      </trkpt>
      <trkpt lat="42.52694" lon="0.20491">
        <ele>968.3</ele>
        <time>2016-07-23T09:40:58Z</time>
      </trkpt>
      <trkpt lat="42.52697" lon="0.2049">
        <ele>966.3</ele>
        <time>2016-07-23T09:40:59Z</time>
      </trkpt>
      <trkpt lat="42.52701" lon="0.20489">
        <ele>962.5</ele>
        <time>2016-07-23T09:41:01Z</time>
      </trkpt>
      <trkpt lat="42.52707" lon="0.20486">
        <ele>958.2</ele>
        <time>2016-07-23T09:41:03Z</time>
      </trkpt>
      <trkpt lat="42.52709" lon="0.20485">
        <ele>956.1</ele>
        <time>2016-07-23T09:41:04Z</time>
      </trkpt>
      <trkpt lat="42.52712" lon="0.20483">
        <ele>954.8</ele>
        <time>2016-07-23T09:41:05Z</time>
      </trkpt>
      <trkpt lat="42.52715" lon="0.20481">
        <ele>953.5</ele>
        <time>2016-07-23T09:41:06Z</time>
      </trkpt>
      <trkpt lat="42.52717" lon="0.20479">
        <ele>952.2</ele>
        <time>2016-07-23T09:41:07Z</time>
      </trkpt>
      <trkpt lat="42.5272" lon="0.20477">
        <ele>950.9</ele>
        <time>2016-07-23T09:41:08Z</time>
      </trkpt>
      <trkpt lat="42.52722" lon="0.20475">
        <ele>949.7</ele>
        <time>2016-07-23T09:41:09Z</time>
      </trkpt>
      <trkpt lat="42.52725" lon="0.20473">
        <ele>948.5</ele>
        <time>2016-07-23T09:41:10Z</time>
      </trkpt>
      <trkpt lat="42.52727" lon="0.20472">
        <ele>947.4</ele>
        <time>2016-07-23T09:41:11Z</time>
      </trkpt>
      <trkpt lat="42.5273" lon="0.2047">
        <ele>946.4</ele>
        <time>2016-07-23T09:41:12Z</time>
      </trkpt>
      <trkpt lat="42.52732" lon="0.20468">
        <ele>945.3</ele>
        <time>2016-07-23T09:41:13Z</time>
      </trkpt>
      <trkpt lat="42.52735" lon="0.20466">
        <ele>944.1</ele>
        <time>2016-07-23T09:41:14Z</time>
      </trkpt>
      <trkpt lat="42.52737" lon="0.20464">
        <ele>943</ele>
        <time>2016-07-23T09:41:15Z</time>
      </trkpt>
      <trkpt lat="42.52742" lon="0.20461">
        <ele>941.1</ele>
        <time>2016-07-23T09:41:17Z</time>
      </trkpt>
      <trkpt lat="42.52744" lon="0.2046">
        <ele>940.3</ele>
        <time>2016-07-23T09:41:18Z</time>
      </trkpt>
      <trkpt lat="42.52747" lon="0.20459">
        <ele>939.4</ele>
        <time>2016-07-23T09:41:19Z</time>
      </trkpt>
      <trkpt lat="42.5275" lon="0.20458">
        <ele>938.8</ele>
        <time>2016-07-23T09:41:20Z</time>
      </trkpt>
      <trkpt lat="42.52753" lon="0.20458">
        <ele>938.5</ele>
        <time>2016-07-23T09:41:21Z</time>
      </trkpt>
      <trkpt lat="42.52758" lon="0.20461">
        <ele>938.9</ele>
        <time>2016-07-23T09:41:23Z</time>
      </trkpt>
      <trkpt lat="42.5276" lon="0.20467">
        <ele>940.9</ele>
        <time>2016-07-23T09:41:25Z</time>
      </trkpt>
      <trkpt lat="42.5276" lon="0.20472">
        <ele>942.5</ele>
        <time>2016-07-23T09:41:26Z</time>
      </trkpt>
      <trkpt lat="42.5276" lon="0.20476">
        <ele>944.1</ele>
        <time>2016-07-23T09:41:27Z</time>
      </trkpt>
      <trkpt lat="42.52759" lon="0.20481">
        <ele>945.8</ele>
        <time>2016-07-23T09:41:28Z</time>
      </trkpt>
      <trkpt lat="42.52758" lon="0.20485">
        <ele>947.6</ele>
        <time>2016-07-23T09:41:29Z</time>
      </trkpt>
      <trkpt lat="42.52758" lon="0.2049">
        <ele>949.5</ele>
        <time>2016-07-23T09:41:30Z</time>
      </trkpt>
      <trkpt lat="42.52757" lon="0.20495">
        <ele>951.4</ele>
        <time>2016-07-23T09:41:31Z</time>
      </trkpt>
      <trkpt lat="42.52756" lon="0.205">
        <ele>953.5</ele>
        <time>2016-07-23T09:41:32Z</time>
      </trkpt>
      <trkpt lat="42.52755" lon="0.20506">
        <ele>955.8</ele>
        <time>2016-07-23T09:41:33Z</time>
      </trkpt>
      <trkpt lat="42.52754" lon="0.20512">
        <ele>958.1</ele>
        <time>2016-07-23T09:41:34Z</time>
      </trkpt>
      <trkpt lat="42.52754" lon="0.20518">
        <ele>960.4</ele>
        <time>2016-07-23T09:41:35Z</time>
      </trkpt>
      <trkpt lat="42.52754" lon="0.20524">
        <ele>962.7</ele>
        <time>2016-07-23T09:41:36Z</time>
      </trkpt>
      <trkpt lat="42.52755" lon="0.20531">
        <ele>965</ele>
        <time>2016-07-23T09:41:37Z</time>
      </trkpt>
      <trkpt lat="42.52756" lon="0.20537">
        <ele>967.1</ele>
        <time>2016-07-23T09:41:38Z</time>
      </trkpt>
      <trkpt lat="42.52757" lon="0.20544">
        <ele>968.7</ele>
        <time>2016-07-23T09:41:39Z</time>
      </trkpt>
      <trkpt lat="42.52758" lon="0.20551">
        <ele>969.3</ele>
        <time>2016-07-23T09:41:40Z</time>
      </trkpt>
      <trkpt lat="42.52759" lon="0.20558">
        <ele>969.8</ele>
        <time>2016-07-23T09:41:41Z</time>
      </trkpt>
      <trkpt lat="42.5276" lon="0.20565">
        <ele>970.4</ele>
        <time>2016-07-23T09:41:42Z</time>
      </trkpt>
      <trkpt lat="42.52761" lon="0.20572">
        <ele>971.1</ele>
        <time>2016-07-23T09:41:43Z</time>
      </trkpt>
      <trkpt lat="42.52762" lon="0.2058">
        <ele>971.8</ele>
        <time>2016-07-23T09:41:44Z</time>
      </trkpt>
      <trkpt lat="42.52761" lon="0.20588">
        <ele>973.1</ele>
        <time>2016-07-23T09:41:45Z</time>
      </trkpt>
      <trkpt lat="42.52759" lon="0.20595">
        <ele>974.8</ele>
        <time>2016-07-23T09:41:46Z</time>
      </trkpt>
      <trkpt lat="42.52756" lon="0.20602">
        <ele>977</ele>
        <time>2016-07-23T09:41:47Z</time>
      </trkpt>
      <trkpt lat="42.52752" lon="0.2061">
        <ele>979.6</ele>
        <time>2016-07-23T09:41:48Z</time>
      </trkpt>
      <trkpt lat="42.52747" lon="0.20617">
        <ele>982.5</ele>
        <time>2016-07-23T09:41:49Z</time>
      </trkpt>
      <trkpt lat="42.52742" lon="0.20623">
        <ele>985.6</ele>
        <time>2016-07-23T09:41:50Z</time>
      </trkpt>
      <trkpt lat="42.52737" lon="0.20628">
        <ele>987.9</ele>
        <time>2016-07-23T09:41:51Z</time>
      </trkpt>
      <trkpt lat="42.5273" lon="0.20632">
        <ele>989.6</ele>
        <time>2016-07-23T09:41:52Z</time>
      </trkpt>
      <trkpt lat="42.52721" lon="0.20631">
        <ele>994.1</ele>
        <time>2016-07-23T09:41:53Z</time>
      </trkpt>
      <trkpt lat="42.52716" lon="0.20637">
        <ele>994.8</ele>
        <time>2016-07-23T09:41:54Z</time>
      </trkpt>
      <trkpt lat="42.52712" lon="0.20647">
        <ele>994.7</ele>
        <time>2016-07-23T09:41:55Z</time>
      </trkpt>
      <trkpt lat="42.52707" lon="0.20654">
        <ele>995</ele>
        <time>2016-07-23T09:41:56Z</time>
      </trkpt>
      <trkpt lat="42.52705" lon="0.20661">
        <ele>994.9</ele>
        <time>2016-07-23T09:41:57Z</time>
      </trkpt>
      <trkpt lat="42.527" lon="0.20669">
        <ele>995.7</ele>
        <time>2016-07-23T09:41:58Z</time>
      </trkpt>
      <trkpt lat="42.52698" lon="0.20675">
        <ele>995.8</ele>
        <time>2016-07-23T09:41:59Z</time>
      </trkpt>
      <trkpt lat="42.52695" lon="0.20682">
        <ele>996</ele>
        <time>2016-07-23T09:42:00Z</time>
      </trkpt>
      <trkpt lat="42.52693" lon="0.20689">
        <ele>996</ele>
        <time>2016-07-23T09:42:01Z</time>
      </trkpt>
      <trkpt lat="42.52689" lon="0.20693">
        <ele>997.1</ele>
        <time>2016-07-23T09:42:02Z</time>
      </trkpt>
      <trkpt lat="42.52684" lon="0.20701">
        <ele>998.7</ele>
        <time>2016-07-23T09:42:03Z</time>
      </trkpt>
      <trkpt lat="42.52683" lon="0.20707">
        <ele>998.3</ele>
        <time>2016-07-23T09:42:04Z</time>
      </trkpt>
      <trkpt lat="42.52678" lon="0.20712">
        <ele>1000</ele>
        <time>2016-07-23T09:42:05Z</time>
      </trkpt>
      <trkpt lat="42.52674" lon="0.20716">
        <ele>1001.2</ele>
        <time>2016-07-23T09:42:06Z</time>
      </trkpt>
      <trkpt lat="42.52672" lon="0.20719">
        <ele>1002</ele>
        <time>2016-07-23T09:42:07Z</time>
      </trkpt>
      <trkpt lat="42.52668" lon="0.20723">
        <ele>1002.8</ele>
        <time>2016-07-23T09:42:08Z</time>
      </trkpt>
      <trkpt lat="42.52666" lon="0.20728">
        <ele>1003.2</ele>
        <time>2016-07-23T09:42:09Z</time>
      </trkpt>
      <trkpt lat="42.52664" lon="0.20733">
        <ele>1003.1</ele>
        <time>2016-07-23T09:42:10Z</time>
      </trkpt>
      <trkpt lat="42.52662" lon="0.20738">
        <ele>1002.6</ele>
        <time>2016-07-23T09:42:11Z</time>
      </trkpt>
      <trkpt lat="42.52661" lon="0.20744">
        <ele>1001.6</ele>
        <time>2016-07-23T09:42:12Z</time>
      </trkpt>
      <trkpt lat="42.52662" lon="0.20752">
        <ele>998.5</ele>
        <time>2016-07-23T09:42:13Z</time>
      </trkpt>
      <trkpt lat="42.52666" lon="0.20757">
        <ele>995.2</ele>
        <time>2016-07-23T09:42:14Z</time>
      </trkpt>
      <trkpt lat="42.52665" lon="0.20763">
        <ele>993.9</ele>
        <time>2016-07-23T09:42:15Z</time>
      </trkpt>
      <trkpt lat="42.52666" lon="0.2077">
        <ele>991.8</ele>
        <time>2016-07-23T09:42:16Z</time>
      </trkpt>
      <trkpt lat="42.52664" lon="0.20775">
        <ele>991.4</ele>
        <time>2016-07-23T09:42:17Z</time>
      </trkpt>
      <trkpt lat="42.52661" lon="0.20778">
        <ele>992.1</ele>
        <time>2016-07-23T09:42:18Z</time>
      </trkpt>
      <trkpt lat="42.52658" lon="0.20783">
        <ele>992.9</ele>
        <time>2016-07-23T09:42:19Z</time>
      </trkpt>
      <trkpt lat="42.52653" lon="0.20786">
        <ele>994.8</ele>
        <time>2016-07-23T09:42:20Z</time>
      </trkpt>
      <trkpt lat="42.5265" lon="0.20789">
        <ele>996</ele>
        <time>2016-07-23T09:42:21Z</time>
      </trkpt>
      <trkpt lat="42.52646" lon="0.20791">
        <ele>997.5</ele>
        <time>2016-07-23T09:42:22Z</time>
      </trkpt>
      <trkpt lat="42.52642" lon="0.20793">
        <ele>999.2</ele>
        <time>2016-07-23T09:42:23Z</time>
      </trkpt>
      <trkpt lat="42.52638" lon="0.20794">
        <ele>1001.2</ele>
        <time>2016-07-23T09:42:24Z</time>
      </trkpt>
      <trkpt lat="42.52633" lon="0.20796">
        <ele>1003.3</ele>
        <time>2016-07-23T09:42:25Z</time>
      </trkpt>
      <trkpt lat="42.52629" lon="0.20798">
        <ele>1005.2</ele>
        <time>2016-07-23T09:42:26Z</time>
      </trkpt>
      <trkpt lat="42.52623" lon="0.20801">
        <ele>1007.2</ele>
        <time>2016-07-23T09:42:27Z</time>
      </trkpt>
      <trkpt lat="42.52618" lon="0.20805">
        <ele>1009.2</ele>
        <time>2016-07-23T09:42:28Z</time>
      </trkpt>
      <trkpt lat="42.52613" lon="0.2081">
        <ele>1010.8</ele>
        <time>2016-07-23T09:42:29Z</time>
      </trkpt>
      <trkpt lat="42.52608" lon="0.20816">
        <ele>1011.5</ele>
        <time>2016-07-23T09:42:30Z</time>
      </trkpt>
      <trkpt lat="42.52605" lon="0.20822">
        <ele>1011.4</ele>
        <time>2016-07-23T09:42:31Z</time>
      </trkpt>
      <trkpt lat="42.52602" lon="0.20829">
        <ele>1010.5</ele>
        <time>2016-07-23T09:42:32Z</time>
      </trkpt>
      <trkpt lat="42.52599" lon="0.20836">
        <ele>1009.3</ele>
        <time>2016-07-23T09:42:33Z</time>
      </trkpt>
      <trkpt lat="42.52597" lon="0.20843">
        <ele>1007.7</ele>
        <time>2016-07-23T09:42:34Z</time>
      </trkpt>
      <trkpt lat="42.52595" lon="0.2085">
        <ele>1006.2</ele>
        <time>2016-07-23T09:42:35Z</time>
      </trkpt>
      <trkpt lat="42.52593" lon="0.20857">
        <ele>1004.6</ele>
        <time>2016-07-23T09:42:36Z</time>
      </trkpt>
      <trkpt lat="42.52591" lon="0.20863">
        <ele>1002.9</ele>
        <time>2016-07-23T09:42:37Z</time>
      </trkpt>
      <trkpt lat="42.52589" lon="0.2087">
        <ele>1001.3</ele>
        <time>2016-07-23T09:42:38Z</time>
      </trkpt>
      <trkpt lat="42.52587" lon="0.20876">
        <ele>999.8</ele>
        <time>2016-07-23T09:42:39Z</time>
      </trkpt>
      <trkpt lat="42.52584" lon="0.20883">
        <ele>999</ele>
        <time>2016-07-23T09:42:40Z</time>
      </trkpt>
      <trkpt lat="42.52582" lon="0.20889">
        <ele>998.4</ele>
        <time>2016-07-23T09:42:41Z</time>
      </trkpt>
      <trkpt lat="42.52579" lon="0.20895">
        <ele>998.5</ele>
        <time>2016-07-23T09:42:42Z</time>
      </trkpt>
      <trkpt lat="42.52575" lon="0.209">
        <ele>999.1</ele>
        <time>2016-07-23T09:42:43Z</time>
      </trkpt>
      <trkpt lat="42.52571" lon="0.20905">
        <ele>1000.4</ele>
        <time>2016-07-23T09:42:44Z</time>
      </trkpt>
      <trkpt lat="42.52566" lon="0.2091">
        <ele>1002.1</ele>
        <time>2016-07-23T09:42:45Z</time>
      </trkpt>
      <trkpt lat="42.52561" lon="0.20914">
        <ele>1004.1</ele>
        <time>2016-07-23T09:42:46Z</time>
      </trkpt>
      <trkpt lat="42.52556" lon="0.20917">
        <ele>1006.6</ele>
        <time>2016-07-23T09:42:47Z</time>
      </trkpt>
      <trkpt lat="42.5255" lon="0.20921">
        <ele>1009.1</ele>
        <time>2016-07-23T09:42:48Z</time>
      </trkpt>
      <trkpt lat="42.52545" lon="0.20925">
        <ele>1011.3</ele>
        <time>2016-07-23T09:42:49Z</time>
      </trkpt>
      <trkpt lat="42.5254" lon="0.20932">
        <ele>1012.4</ele>
        <time>2016-07-23T09:42:50Z</time>
      </trkpt>
      <trkpt lat="42.52537" lon="0.20939">
        <ele>1012.2</ele>
        <time>2016-07-23T09:42:51Z</time>
      </trkpt>
      <trkpt lat="42.52535" lon="0.20946">
        <ele>1010.7</ele>
        <time>2016-07-23T09:42:52Z</time>
      </trkpt>
      <trkpt lat="42.52535" lon="0.20954">
        <ele>1008.5</ele>
        <time>2016-07-23T09:42:53Z</time>
      </trkpt>
      <trkpt lat="42.52535" lon="0.20961">
        <ele>1006.7</ele>
        <time>2016-07-23T09:42:54Z</time>
      </trkpt>
      <trkpt lat="42.52535" lon="0.20969">
        <ele>1005.9</ele>
        <time>2016-07-23T09:42:55Z</time>
      </trkpt>
      <trkpt lat="42.52535" lon="0.20976">
        <ele>1005.3</ele>
        <time>2016-07-23T09:42:56Z</time>
      </trkpt>
      <trkpt lat="42.52535" lon="0.20983">
        <ele>1004.1</ele>
        <time>2016-07-23T09:42:57Z</time>
      </trkpt>
      <trkpt lat="42.52536" lon="0.20991">
        <ele>1003</ele>
        <time>2016-07-23T09:42:58Z</time>
      </trkpt>
      <trkpt lat="42.52536" lon="0.20999">
        <ele>1002</ele>
        <time>2016-07-23T09:42:59Z</time>
      </trkpt>
      <trkpt lat="42.52536" lon="0.21006">
        <ele>1001.3</ele>
        <time>2016-07-23T09:43:00Z</time>
      </trkpt>
      <trkpt lat="42.52536" lon="0.21014">
        <ele>1000.8</ele>
        <time>2016-07-23T09:43:01Z</time>
      </trkpt>
      <trkpt lat="42.52535" lon="0.21022">
        <ele>1000.5</ele>
        <time>2016-07-23T09:43:02Z</time>
      </trkpt>
      <trkpt lat="42.52534" lon="0.2103">
        <ele>1000.2</ele>
        <time>2016-07-23T09:43:03Z</time>
      </trkpt>
      <trkpt lat="42.52534" lon="0.2104">
        <ele>999.5</ele>
        <time>2016-07-23T09:43:04Z</time>
      </trkpt>
      <trkpt lat="42.52533" lon="0.21048">
        <ele>999.3</ele>
        <time>2016-07-23T09:43:05Z</time>
      </trkpt>
      <trkpt lat="42.5253" lon="0.21055">
        <ele>1000.4</ele>
        <time>2016-07-23T09:43:06Z</time>
      </trkpt>
      <trkpt lat="42.52529" lon="0.21062">
        <ele>999.9</ele>
        <time>2016-07-23T09:43:07Z</time>
      </trkpt>
      <trkpt lat="42.52529" lon="0.21068">
        <ele>998.6</ele>
        <time>2016-07-23T09:43:08Z</time>
      </trkpt>
      <trkpt lat="42.52528" lon="0.21074">
        <ele>998.5</ele>
        <time>2016-07-23T09:43:09Z</time>
      </trkpt>
      <trkpt lat="42.52526" lon="0.2108">
        <ele>999.1</ele>
        <time>2016-07-23T09:43:10Z</time>
      </trkpt>
      <trkpt lat="42.52523" lon="0.21085">
        <ele>1000</ele>
        <time>2016-07-23T09:43:11Z</time>
      </trkpt>
      <trkpt lat="42.52522" lon="0.21089">
        <ele>1000.6</ele>
        <time>2016-07-23T09:43:12Z</time>
      </trkpt>
      <trkpt lat="42.5252" lon="0.21093">
        <ele>1001.6</ele>
        <time>2016-07-23T09:43:13Z</time>
      </trkpt>
      <trkpt lat="42.52518" lon="0.21098">
        <ele>1002.1</ele>
        <time>2016-07-23T09:43:14Z</time>
      </trkpt>
      <trkpt lat="42.52517" lon="0.21102">
        <ele>1002.6</ele>
        <time>2016-07-23T09:43:15Z</time>
      </trkpt>
      <trkpt lat="42.52514" lon="0.21107">
        <ele>1004.2</ele>
        <time>2016-07-23T09:43:16Z</time>
      </trkpt>
      <trkpt lat="42.52513" lon="0.21111">
        <ele>1004.3</ele>
        <time>2016-07-23T09:43:17Z</time>
      </trkpt>
      <trkpt lat="42.52511" lon="0.21116">
        <ele>1005.2</ele>
        <time>2016-07-23T09:43:18Z</time>
      </trkpt>
      <trkpt lat="42.52509" lon="0.21121">
        <ele>1005.5</ele>
        <time>2016-07-23T09:43:19Z</time>
      </trkpt>
      <trkpt lat="42.52508" lon="0.21126">
        <ele>1005.9</ele>
        <time>2016-07-23T09:43:20Z</time>
      </trkpt>
      <trkpt lat="42.52507" lon="0.21133">
        <ele>1004.5</ele>
        <time>2016-07-23T09:43:21Z</time>
      </trkpt>
      <trkpt lat="42.52506" lon="0.21139">
        <ele>1003</ele>
        <time>2016-07-23T09:43:22Z</time>
      </trkpt>
      <trkpt lat="42.52504" lon="0.21148">
        <ele>1002.1</ele>
        <time>2016-07-23T09:43:23Z</time>
      </trkpt>
      <trkpt lat="42.52503" lon="0.21155">
        <ele>1000</ele>
        <time>2016-07-23T09:43:24Z</time>
      </trkpt>
      <trkpt lat="42.52502" lon="0.21161">
        <ele>998.6</ele>
        <time>2016-07-23T09:43:25Z</time>
      </trkpt>
      <trkpt lat="42.52501" lon="0.21168">
        <ele>997.5</ele>
        <time>2016-07-23T09:43:26Z</time>
      </trkpt>
      <trkpt lat="42.52498" lon="0.21175">
        <ele>996.9</ele>
        <time>2016-07-23T09:43:27Z</time>
      </trkpt>
      <trkpt lat="42.52497" lon="0.21181">
        <ele>996.2</ele>
        <time>2016-07-23T09:43:28Z</time>
      </trkpt>
      <trkpt lat="42.52495" lon="0.21187">
        <ele>995.3</ele>
        <time>2016-07-23T09:43:29Z</time>
      </trkpt>
      <trkpt lat="42.52494" lon="0.21192">
        <ele>994</ele>
        <time>2016-07-23T09:43:30Z</time>
      </trkpt>
      <trkpt lat="42.52491" lon="0.21198">
        <ele>993.6</ele>
        <time>2016-07-23T09:43:31Z</time>
      </trkpt>
      <trkpt lat="42.52489" lon="0.21204">
        <ele>992.9</ele>
        <time>2016-07-23T09:43:32Z</time>
      </trkpt>
      <trkpt lat="42.52487" lon="0.21209">
        <ele>992.3</ele>
        <time>2016-07-23T09:43:33Z</time>
      </trkpt>
      <trkpt lat="42.52485" lon="0.21215">
        <ele>992</ele>
        <time>2016-07-23T09:43:34Z</time>
      </trkpt>
      <trkpt lat="42.52483" lon="0.2122">
        <ele>991.4</ele>
        <time>2016-07-23T09:43:35Z</time>
      </trkpt>
      <trkpt lat="42.52483" lon="0.21225">
        <ele>990.3</ele>
        <time>2016-07-23T09:43:36Z</time>
      </trkpt>
      <trkpt lat="42.52483" lon="0.21231">
        <ele>988.4</ele>
        <time>2016-07-23T09:43:37Z</time>
      </trkpt>
      <trkpt lat="42.52483" lon="0.21238">
        <ele>986.2</ele>
        <time>2016-07-23T09:43:38Z</time>
      </trkpt>
      <trkpt lat="42.52484" lon="0.21243">
        <ele>984.3</ele>
        <time>2016-07-23T09:43:39Z</time>
      </trkpt>
      <trkpt lat="42.52484" lon="0.21249">
        <ele>982.3</ele>
        <time>2016-07-23T09:43:40Z</time>
      </trkpt>
      <trkpt lat="42.52484" lon="0.21254">
        <ele>980.7</ele>
        <time>2016-07-23T09:43:41Z</time>
      </trkpt>
      <trkpt lat="42.52484" lon="0.2126">
        <ele>979.1</ele>
        <time>2016-07-23T09:43:42Z</time>
      </trkpt>
      <trkpt lat="42.52483" lon="0.21267">
        <ele>977.5</ele>
        <time>2016-07-23T09:43:43Z</time>
      </trkpt>
      <trkpt lat="42.52482" lon="0.21273">
        <ele>976.2</ele>
        <time>2016-07-23T09:43:44Z</time>
      </trkpt>
      <trkpt lat="42.5248" lon="0.21279">
        <ele>975.1</ele>
        <time>2016-07-23T09:43:45Z</time>
      </trkpt>
      <trkpt lat="42.52478" lon="0.21285">
        <ele>974.4</ele>
        <time>2016-07-23T09:43:46Z</time>
      </trkpt>
      <trkpt lat="42.52475" lon="0.2129">
        <ele>974.1</ele>
        <time>2016-07-23T09:43:47Z</time>
      </trkpt>
      <trkpt lat="42.52472" lon="0.21294">
        <ele>974.2</ele>
        <time>2016-07-23T09:43:48Z</time>
      </trkpt>
      <trkpt lat="42.52468" lon="0.21297">
        <ele>974.7</ele>
        <time>2016-07-23T09:43:49Z</time>
      </trkpt>
      <trkpt lat="42.52464" lon="0.213">
        <ele>975.7</ele>
        <time>2016-07-23T09:43:50Z</time>
      </trkpt>
      <trkpt lat="42.52459" lon="0.21302">
        <ele>977.1</ele>
        <time>2016-07-23T09:43:51Z</time>
      </trkpt>
      <trkpt lat="42.52454" lon="0.21302">
        <ele>978.9</ele>
        <time>2016-07-23T09:43:52Z</time>
      </trkpt>
      <trkpt lat="42.52449" lon="0.21303">
        <ele>980.9</ele>
        <time>2016-07-23T09:43:53Z</time>
      </trkpt>
      <trkpt lat="42.52443" lon="0.21303">
        <ele>982.9</ele>
        <time>2016-07-23T09:43:54Z</time>
      </trkpt>
      <trkpt lat="42.52438" lon="0.21303">
        <ele>984.9</ele>
        <time>2016-07-23T09:43:55Z</time>
      </trkpt>
      <trkpt lat="42.52434" lon="0.21303">
        <ele>986.7</ele>
        <time>2016-07-23T09:43:56Z</time>
      </trkpt>
      <trkpt lat="42.52428" lon="0.21304">
        <ele>988.8</ele>
        <time>2016-07-23T09:43:57Z</time>
      </trkpt>
      <trkpt lat="42.52422" lon="0.21305">
        <ele>991</ele>
        <time>2016-07-23T09:43:58Z</time>
      </trkpt>
      <trkpt lat="42.52416" lon="0.21305">
        <ele>993.2</ele>
        <time>2016-07-23T09:43:59Z</time>
      </trkpt>
      <trkpt lat="42.52411" lon="0.21306">
        <ele>995.4</ele>
        <time>2016-07-23T09:44:00Z</time>
      </trkpt>
      <trkpt lat="42.52406" lon="0.21306">
        <ele>997.1</ele>
        <time>2016-07-23T09:44:01Z</time>
      </trkpt>
      <trkpt lat="42.52403" lon="0.21306">
        <ele>998.3</ele>
        <time>2016-07-23T09:44:02Z</time>
      </trkpt>
      <trkpt lat="42.524" lon="0.21306">
        <ele>999.5</ele>
        <time>2016-07-23T09:44:04Z</time>
      </trkpt>
      <trkpt lat="42.52397" lon="0.21306">
        <ele>1001.1</ele>
        <time>2016-07-23T09:44:06Z</time>
      </trkpt>
      <trkpt lat="42.52393" lon="0.21304">
        <ele>1003.1</ele>
        <time>2016-07-23T09:44:08Z</time>
      </trkpt>
      <trkpt lat="42.52388" lon="0.21305">
        <ele>1004.8</ele>
        <time>2016-07-23T09:44:10Z</time>
      </trkpt>
      <trkpt lat="42.52385" lon="0.21307">
        <ele>1005.5</ele>
        <time>2016-07-23T09:44:11Z</time>
      </trkpt>
      <trkpt lat="42.52382" lon="0.2131">
        <ele>1006.1</ele>
        <time>2016-07-23T09:44:12Z</time>
      </trkpt>
      <trkpt lat="42.52379" lon="0.21313">
        <ele>1006.5</ele>
        <time>2016-07-23T09:44:13Z</time>
      </trkpt>
      <trkpt lat="42.52377" lon="0.21318">
        <ele>1006.5</ele>
        <time>2016-07-23T09:44:14Z</time>
      </trkpt>
      <trkpt lat="42.52375" lon="0.21322">
        <ele>1006.4</ele>
        <time>2016-07-23T09:44:15Z</time>
      </trkpt>
      <trkpt lat="42.52373" lon="0.21327">
        <ele>1006.7</ele>
        <time>2016-07-23T09:44:16Z</time>
      </trkpt>
      <trkpt lat="42.52371" lon="0.21332">
        <ele>1007.3</ele>
        <time>2016-07-23T09:44:17Z</time>
      </trkpt>
      <trkpt lat="42.52368" lon="0.21337">
        <ele>1007.9</ele>
        <time>2016-07-23T09:44:18Z</time>
      </trkpt>
      <trkpt lat="42.52366" lon="0.21342">
        <ele>1008.7</ele>
        <time>2016-07-23T09:44:19Z</time>
      </trkpt>
      <trkpt lat="42.52364" lon="0.21347">
        <ele>1009.4</ele>
        <time>2016-07-23T09:44:20Z</time>
      </trkpt>
      <trkpt lat="42.52361" lon="0.21352">
        <ele>1010</ele>
        <time>2016-07-23T09:44:21Z</time>
      </trkpt>
      <trkpt lat="42.52359" lon="0.21357">
        <ele>1010.8</ele>
        <time>2016-07-23T09:44:22Z</time>
      </trkpt>
      <trkpt lat="42.52357" lon="0.2136">
        <ele>1011.6</ele>
        <time>2016-07-23T09:44:23Z</time>
      </trkpt>
      <trkpt lat="42.52356" lon="0.21363">
        <ele>1012.3</ele>
        <time>2016-07-23T09:44:24Z</time>
      </trkpt>
      <trkpt lat="42.52355" lon="0.21368">
        <ele>1012.2</ele>
        <time>2016-07-23T09:44:25Z</time>
      </trkpt>
      <trkpt lat="42.52355" lon="0.21372">
        <ele>1011.5</ele>
        <time>2016-07-23T09:44:26Z</time>
      </trkpt>
      <trkpt lat="42.52355" lon="0.21376">
        <ele>1010.5</ele>
        <time>2016-07-23T09:44:27Z</time>
      </trkpt>
      <trkpt lat="42.52355" lon="0.21381">
        <ele>1009.7</ele>
        <time>2016-07-23T09:44:28Z</time>
      </trkpt>
      <trkpt lat="42.52354" lon="0.21385">
        <ele>1009.3</ele>
        <time>2016-07-23T09:44:29Z</time>
      </trkpt>
      <trkpt lat="42.52353" lon="0.21389">
        <ele>1009.1</ele>
        <time>2016-07-23T09:44:30Z</time>
      </trkpt>
      <trkpt lat="42.52351" lon="0.21394">
        <ele>1009.4</ele>
        <time>2016-07-23T09:44:31Z</time>
      </trkpt>
      <trkpt lat="42.52349" lon="0.21398">
        <ele>1009.8</ele>
        <time>2016-07-23T09:44:32Z</time>
      </trkpt>
      <trkpt lat="42.52347" lon="0.21403">
        <ele>1010.3</ele>
        <time>2016-07-23T09:44:33Z</time>
      </trkpt>
      <trkpt lat="42.52346" lon="0.21407">
        <ele>1010.6</ele>
        <time>2016-07-23T09:44:34Z</time>
      </trkpt>
      <trkpt lat="42.52343" lon="0.21413">
        <ele>1011.1</ele>
        <time>2016-07-23T09:44:36Z</time>
      </trkpt>
      <trkpt lat="42.52342" lon="0.21417">
        <ele>1011.4</ele>
        <time>2016-07-23T09:44:37Z</time>
      </trkpt>
      <trkpt lat="42.5234" lon="0.21421">
        <ele>1011.8</ele>
        <time>2016-07-23T09:44:38Z</time>
      </trkpt>
      <trkpt lat="42.52338" lon="0.21425">
        <ele>1012.3</ele>
        <time>2016-07-23T09:44:39Z</time>
      </trkpt>
      <trkpt lat="42.52336" lon="0.21429">
        <ele>1012.7</ele>
        <time>2016-07-23T09:44:40Z</time>
      </trkpt>
      <trkpt lat="42.52334" lon="0.21433">
        <ele>1013.4</ele>
        <time>2016-07-23T09:44:41Z</time>
      </trkpt>
      <trkpt lat="42.52332" lon="0.21437">
        <ele>1014.2</ele>
        <time>2016-07-23T09:44:42Z</time>
      </trkpt>
      <trkpt lat="42.5233" lon="0.21441">
        <ele>1014.6</ele>
        <time>2016-07-23T09:44:43Z</time>
      </trkpt>
      <trkpt lat="42.52328" lon="0.21445">
        <ele>1015.2</ele>
        <time>2016-07-23T09:44:44Z</time>
      </trkpt>
      <trkpt lat="42.52326" lon="0.21449">
        <ele>1015.7</ele>
        <time>2016-07-23T09:44:45Z</time>
      </trkpt>
      <trkpt lat="42.52324" lon="0.21453">
        <ele>1016.5</ele>
        <time>2016-07-23T09:44:46Z</time>
      </trkpt>
      <trkpt lat="42.52322" lon="0.21457">
        <ele>1017.1</ele>
        <time>2016-07-23T09:44:47Z</time>
      </trkpt>
      <trkpt lat="42.52319" lon="0.21461">
        <ele>1017.3</ele>
        <time>2016-07-23T09:44:48Z</time>
      </trkpt>
      <trkpt lat="42.52318" lon="0.21464">
        <ele>1016.7</ele>
        <time>2016-07-23T09:44:49Z</time>
      </trkpt>
      <trkpt lat="42.52316" lon="0.21468">
        <ele>1015.9</ele>
        <time>2016-07-23T09:44:50Z</time>
      </trkpt>
      <trkpt lat="42.52315" lon="0.21472">
        <ele>1014.9</ele>
        <time>2016-07-23T09:44:51Z</time>
      </trkpt>
      <trkpt lat="42.52314" lon="0.21475">
        <ele>1013.8</ele>
        <time>2016-07-23T09:44:52Z</time>
      </trkpt>
      <trkpt lat="42.52313" lon="0.21479">
        <ele>1013</ele>
        <time>2016-07-23T09:44:53Z</time>
      </trkpt>
      <trkpt lat="42.52311" lon="0.21482">
        <ele>1012.1</ele>
        <time>2016-07-23T09:44:54Z</time>
      </trkpt>
      <trkpt lat="42.52309" lon="0.21486">
        <ele>1011.3</ele>
        <time>2016-07-23T09:44:55Z</time>
      </trkpt>
      <trkpt lat="42.52306" lon="0.21491">
        <ele>1010.4</ele>
        <time>2016-07-23T09:44:57Z</time>
      </trkpt>
      <trkpt lat="42.52303" lon="0.21496">
        <ele>1009.9</ele>
        <time>2016-07-23T09:44:59Z</time>
      </trkpt>
      <trkpt lat="42.52298" lon="0.215">
        <ele>1010.5</ele>
        <time>2016-07-23T09:45:01Z</time>
      </trkpt>
      <trkpt lat="42.52296" lon="0.21502">
        <ele>1011</ele>
        <time>2016-07-23T09:45:02Z</time>
      </trkpt>
      <trkpt lat="42.52293" lon="0.21504">
        <ele>1011.7</ele>
        <time>2016-07-23T09:45:03Z</time>
      </trkpt>
      <trkpt lat="42.5229" lon="0.21506">
        <ele>1010.8</ele>
        <time>2016-07-23T09:45:04Z</time>
      </trkpt>
      <trkpt lat="42.52287" lon="0.21508">
        <ele>1009.6</ele>
        <time>2016-07-23T09:45:05Z</time>
      </trkpt>
      <trkpt lat="42.52282" lon="0.2151">
        <ele>1007.9</ele>
        <time>2016-07-23T09:45:07Z</time>
      </trkpt>
      <trkpt lat="42.5228" lon="0.21511">
        <ele>1007.1</ele>
        <time>2016-07-23T09:45:08Z</time>
      </trkpt>
      <trkpt lat="42.52277" lon="0.21512">
        <ele>1006.1</ele>
        <time>2016-07-23T09:45:09Z</time>
      </trkpt>
      <trkpt lat="42.52274" lon="0.21513">
        <ele>1005.1</ele>
        <time>2016-07-23T09:45:10Z</time>
      </trkpt>
      <trkpt lat="42.52271" lon="0.21515">
        <ele>1004.1</ele>
        <time>2016-07-23T09:45:11Z</time>
      </trkpt>
      <trkpt lat="42.52268" lon="0.21515">
        <ele>1003.3</ele>
        <time>2016-07-23T09:45:12Z</time>
      </trkpt>
      <trkpt lat="42.52265" lon="0.21515">
        <ele>1003</ele>
        <time>2016-07-23T09:45:13Z</time>
      </trkpt>
      <trkpt lat="42.52261" lon="0.21515">
        <ele>1002.9</ele>
        <time>2016-07-23T09:45:14Z</time>
      </trkpt>
      <trkpt lat="42.52257" lon="0.21514">
        <ele>1003.2</ele>
        <time>2016-07-23T09:45:15Z</time>
      </trkpt>
      <trkpt lat="42.52254" lon="0.21513">
        <ele>1003.5</ele>
        <time>2016-07-23T09:45:16Z</time>
      </trkpt>
      <trkpt lat="42.5225" lon="0.21511">
        <ele>1004</ele>
        <time>2016-07-23T09:45:17Z</time>
      </trkpt>
      <trkpt lat="42.52247" lon="0.2151">
        <ele>1004.5</ele>
        <time>2016-07-23T09:45:18Z</time>
      </trkpt>
      <trkpt lat="42.52243" lon="0.21509">
        <ele>1005</ele>
        <time>2016-07-23T09:45:19Z</time>
      </trkpt>
      <trkpt lat="42.5224" lon="0.21508">
        <ele>1005.2</ele>
        <time>2016-07-23T09:45:20Z</time>
      </trkpt>
      <trkpt lat="42.52237" lon="0.21507">
        <ele>1005.2</ele>
        <time>2016-07-23T09:45:21Z</time>
      </trkpt>
      <trkpt lat="42.52233" lon="0.21507">
        <ele>1005</ele>
        <time>2016-07-23T09:45:22Z</time>
      </trkpt>
      <trkpt lat="42.5223" lon="0.21507">
        <ele>1004.6</ele>
        <time>2016-07-23T09:45:23Z</time>
      </trkpt>
      <trkpt lat="42.52226" lon="0.21507">
        <ele>1004</ele>
        <time>2016-07-23T09:45:24Z</time>
      </trkpt>
      <trkpt lat="42.52223" lon="0.21508">
        <ele>1003.2</ele>
        <time>2016-07-23T09:45:25Z</time>
      </trkpt>
      <trkpt lat="42.52218" lon="0.21509">
        <ele>1002.3</ele>
        <time>2016-07-23T09:45:27Z</time>
      </trkpt>
      <trkpt lat="42.52215" lon="0.21509">
        <ele>1002</ele>
        <time>2016-07-23T09:45:28Z</time>
      </trkpt>
      <trkpt lat="42.52212" lon="0.21509">
        <ele>1001.6</ele>
        <time>2016-07-23T09:45:29Z</time>
      </trkpt>
      <trkpt lat="42.52208" lon="0.21509">
        <ele>1001.4</ele>
        <time>2016-07-23T09:45:30Z</time>
      </trkpt>
      <trkpt lat="42.52205" lon="0.21509">
        <ele>1000.9</ele>
        <time>2016-07-23T09:45:31Z</time>
      </trkpt>
      <trkpt lat="42.52198" lon="0.2151">
        <ele>999.2</ele>
        <time>2016-07-23T09:45:33Z</time>
      </trkpt>
      <trkpt lat="42.52195" lon="0.21511">
        <ele>998</ele>
        <time>2016-07-23T09:45:34Z</time>
      </trkpt>
      <trkpt lat="42.52191" lon="0.21513">
        <ele>996.7</ele>
        <time>2016-07-23T09:45:35Z</time>
      </trkpt>
      <trkpt lat="42.52188" lon="0.21515">
        <ele>995.1</ele>
        <time>2016-07-23T09:45:36Z</time>
      </trkpt>
      <trkpt lat="42.52184" lon="0.21516">
        <ele>993.8</ele>
        <time>2016-07-23T09:45:37Z</time>
      </trkpt>
      <trkpt lat="42.5218" lon="0.21517">
        <ele>992.7</ele>
        <time>2016-07-23T09:45:38Z</time>
      </trkpt>
      <trkpt lat="42.52177" lon="0.21517">
        <ele>992</ele>
        <time>2016-07-23T09:45:39Z</time>
      </trkpt>
      <trkpt lat="42.52173" lon="0.21517">
        <ele>991.7</ele>
        <time>2016-07-23T09:45:40Z</time>
      </trkpt>
      <trkpt lat="42.5217" lon="0.21517">
        <ele>991.3</ele>
        <time>2016-07-23T09:45:41Z</time>
      </trkpt>
      <trkpt lat="42.52166" lon="0.21517">
        <ele>990.7</ele>
        <time>2016-07-23T09:45:42Z</time>
      </trkpt>
      <trkpt lat="42.52162" lon="0.21517">
        <ele>990</ele>
        <time>2016-07-23T09:45:43Z</time>
      </trkpt>
      <trkpt lat="42.52158" lon="0.21518">
        <ele>989.1</ele>
        <time>2016-07-23T09:45:44Z</time>
      </trkpt>
      <trkpt lat="42.52153" lon="0.21518">
        <ele>988.1</ele>
        <time>2016-07-23T09:45:45Z</time>
      </trkpt>
      <trkpt lat="42.52149" lon="0.21519">
        <ele>987.3</ele>
        <time>2016-07-23T09:45:46Z</time>
      </trkpt>
      <trkpt lat="42.52146" lon="0.21519">
        <ele>986.6</ele>
        <time>2016-07-23T09:45:47Z</time>
      </trkpt>
      <trkpt lat="42.52142" lon="0.21519">
        <ele>986</ele>
        <time>2016-07-23T09:45:48Z</time>
      </trkpt>
      <trkpt lat="42.52138" lon="0.21519">
        <ele>985.7</ele>
        <time>2016-07-23T09:45:49Z</time>
      </trkpt>
      <trkpt lat="42.52134" lon="0.21517">
        <ele>985.7</ele>
        <time>2016-07-23T09:45:50Z</time>
      </trkpt>
      <trkpt lat="42.52131" lon="0.21516">
        <ele>985.9</ele>
        <time>2016-07-23T09:45:51Z</time>
      </trkpt>
      <trkpt lat="42.52127" lon="0.21513">
        <ele>986.4</ele>
        <time>2016-07-23T09:45:52Z</time>
      </trkpt>
      <trkpt lat="42.52124" lon="0.2151">
        <ele>987</ele>
        <time>2016-07-23T09:45:53Z</time>
      </trkpt>
      <trkpt lat="42.52121" lon="0.21507">
        <ele>988.2</ele>
        <time>2016-07-23T09:45:54Z</time>
      </trkpt>
      <trkpt lat="42.52118" lon="0.21504">
        <ele>989.5</ele>
        <time>2016-07-23T09:45:55Z</time>
      </trkpt>
      <trkpt lat="42.52115" lon="0.21501">
        <ele>990.5</ele>
        <time>2016-07-23T09:45:56Z</time>
      </trkpt>
      <trkpt lat="42.52112" lon="0.21498">
        <ele>991.4</ele>
        <time>2016-07-23T09:45:57Z</time>
      </trkpt>
      <trkpt lat="42.52109" lon="0.21496">
        <ele>992.2</ele>
        <time>2016-07-23T09:45:58Z</time>
      </trkpt>
      <trkpt lat="42.52107" lon="0.21494">
        <ele>992.9</ele>
        <time>2016-07-23T09:45:59Z</time>
      </trkpt>
      <trkpt lat="42.52104" lon="0.21492">
        <ele>993.5</ele>
        <time>2016-07-23T09:46:00Z</time>
      </trkpt>
      <trkpt lat="42.52101" lon="0.2149">
        <ele>994.1</ele>
        <time>2016-07-23T09:46:01Z</time>
      </trkpt>
      <trkpt lat="42.52098" lon="0.21489">
        <ele>994.6</ele>
        <time>2016-07-23T09:46:02Z</time>
      </trkpt>
      <trkpt lat="42.52095" lon="0.21487">
        <ele>995</ele>
        <time>2016-07-23T09:46:03Z</time>
      </trkpt>
      <trkpt lat="42.52093" lon="0.21486">
        <ele>995.4</ele>
        <time>2016-07-23T09:46:04Z</time>
      </trkpt>
      <trkpt lat="42.52086" lon="0.21482">
        <ele>996.4</ele>
        <time>2016-07-23T09:46:07Z</time>
      </trkpt>
      <trkpt lat="42.52081" lon="0.2148">
        <ele>997.2</ele>
        <time>2016-07-23T09:46:09Z</time>
      </trkpt>
      <trkpt lat="42.52076" lon="0.21478">
        <ele>997.6</ele>
        <time>2016-07-23T09:46:11Z</time>
      </trkpt>
      <trkpt lat="42.52073" lon="0.21478">
        <ele>997.6</ele>
        <time>2016-07-23T09:46:12Z</time>
      </trkpt>
      <trkpt lat="42.5207" lon="0.21477">
        <ele>997.7</ele>
        <time>2016-07-23T09:46:13Z</time>
      </trkpt>
      <trkpt lat="42.52067" lon="0.21477">
        <ele>997.9</ele>
        <time>2016-07-23T09:46:14Z</time>
      </trkpt>
      <trkpt lat="42.52065" lon="0.21475">
        <ele>998.2</ele>
        <time>2016-07-23T09:46:15Z</time>
      </trkpt>
      <trkpt lat="42.52062" lon="0.21474">
        <ele>998.7</ele>
        <time>2016-07-23T09:46:16Z</time>
      </trkpt>
      <trkpt lat="42.5206" lon="0.21472">
        <ele>999.1</ele>
        <time>2016-07-23T09:46:17Z</time>
      </trkpt>
      <trkpt lat="42.52054" lon="0.21471">
        <ele>999.3</ele>
        <time>2016-07-23T09:46:19Z</time>
      </trkpt>
      <trkpt lat="42.52051" lon="0.21471">
        <ele>999</ele>
        <time>2016-07-23T09:46:20Z</time>
      </trkpt>
      <trkpt lat="42.52046" lon="0.21475">
        <ele>997.7</ele>
        <time>2016-07-23T09:46:22Z</time>
      </trkpt>
      <trkpt lat="42.52044" lon="0.21477">
        <ele>996.8</ele>
        <time>2016-07-23T09:46:23Z</time>
      </trkpt>
      <trkpt lat="42.5204" lon="0.21481">
        <ele>995.5</ele>
        <time>2016-07-23T09:46:25Z</time>
      </trkpt>
      <trkpt lat="42.52035" lon="0.21483">
        <ele>995.6</ele>
        <time>2016-07-23T09:46:27Z</time>
      </trkpt>
      <trkpt lat="42.52032" lon="0.21482">
        <ele>996.1</ele>
        <time>2016-07-23T09:46:28Z</time>
      </trkpt>
      <trkpt lat="42.52029" lon="0.21481">
        <ele>996.9</ele>
        <time>2016-07-23T09:46:29Z</time>
      </trkpt>
      <trkpt lat="42.52027" lon="0.21479">
        <ele>997.8</ele>
        <time>2016-07-23T09:46:30Z</time>
      </trkpt>
      <trkpt lat="42.52025" lon="0.21476">
        <ele>998.8</ele>
        <time>2016-07-23T09:46:31Z</time>
      </trkpt>
      <trkpt lat="42.52022" lon="0.21474">
        <ele>999.9</ele>
        <time>2016-07-23T09:46:32Z</time>
      </trkpt>
      <trkpt lat="42.5202" lon="0.21472">
        <ele>1000.8</ele>
        <time>2016-07-23T09:46:33Z</time>
      </trkpt>
      <trkpt lat="42.52015" lon="0.21469">
        <ele>1002.4</ele>
        <time>2016-07-23T09:46:35Z</time>
      </trkpt>
      <trkpt lat="42.52012" lon="0.21468">
        <ele>1003.1</ele>
        <time>2016-07-23T09:46:36Z</time>
      </trkpt>
      <trkpt lat="42.52009" lon="0.21467">
        <ele>1003.7</ele>
        <time>2016-07-23T09:46:37Z</time>
      </trkpt>
      <trkpt lat="42.52006" lon="0.21466">
        <ele>1004.2</ele>
        <time>2016-07-23T09:46:38Z</time>
      </trkpt>
      <trkpt lat="42.52003" lon="0.21467">
        <ele>1004.4</ele>
        <time>2016-07-23T09:46:39Z</time>
      </trkpt>
      <trkpt lat="42.52001" lon="0.21467">
        <ele>1004.5</ele>
        <time>2016-07-23T09:46:40Z</time>
      </trkpt>
      <trkpt lat="42.51998" lon="0.21468">
        <ele>1004.4</ele>
        <time>2016-07-23T09:46:41Z</time>
      </trkpt>
      <trkpt lat="42.51995" lon="0.21469">
        <ele>1004.5</ele>
        <time>2016-07-23T09:46:42Z</time>
      </trkpt>
      <trkpt lat="42.51992" lon="0.21469">
        <ele>1004.7</ele>
        <time>2016-07-23T09:46:43Z</time>
      </trkpt>
      <trkpt lat="42.51988" lon="0.21469">
        <ele>1005</ele>
        <time>2016-07-23T09:46:44Z</time>
      </trkpt>
      <trkpt lat="42.51985" lon="0.21469">
        <ele>1005.4</ele>
        <time>2016-07-23T09:46:45Z</time>
      </trkpt>
      <trkpt lat="42.51983" lon="0.21469">
        <ele>1005.8</ele>
        <time>2016-07-23T09:46:46Z</time>
      </trkpt>
      <trkpt lat="42.51978" lon="0.2147">
        <ele>1006</ele>
        <time>2016-07-23T09:46:48Z</time>
      </trkpt>
      <trkpt lat="42.51973" lon="0.21471">
        <ele>1006</ele>
        <time>2016-07-23T09:46:50Z</time>
      </trkpt>
      <trkpt lat="42.51968" lon="0.21473">
        <ele>1005.9</ele>
        <time>2016-07-23T09:46:52Z</time>
      </trkpt>
      <trkpt lat="42.51966" lon="0.21474">
        <ele>1006</ele>
        <time>2016-07-23T09:46:53Z</time>
      </trkpt>
      <trkpt lat="42.51962" lon="0.21475">
        <ele>1006</ele>
        <time>2016-07-23T09:46:54Z</time>
      </trkpt>
      <trkpt lat="42.51959" lon="0.21476">
        <ele>1006.2</ele>
        <time>2016-07-23T09:46:55Z</time>
      </trkpt>
      <trkpt lat="42.51956" lon="0.21476">
        <ele>1006.4</ele>
        <time>2016-07-23T09:46:56Z</time>
      </trkpt>
      <trkpt lat="42.51953" lon="0.21476">
        <ele>1006.7</ele>
        <time>2016-07-23T09:46:57Z</time>
      </trkpt>
      <trkpt lat="42.5195" lon="0.21476">
        <ele>1007</ele>
        <time>2016-07-23T09:46:58Z</time>
      </trkpt>
      <trkpt lat="42.51946" lon="0.21477">
        <ele>1007.4</ele>
        <time>2016-07-23T09:47:00Z</time>
      </trkpt>
      <trkpt lat="42.51942" lon="0.21477">
        <ele>1007.9</ele>
        <time>2016-07-23T09:47:02Z</time>
      </trkpt>
      <trkpt lat="42.51939" lon="0.21479">
        <ele>1007.6</ele>
        <time>2016-07-23T09:47:05Z</time>
      </trkpt>
      <trkpt lat="42.51937" lon="0.21482">
        <ele>1007</ele>
        <time>2016-07-23T09:47:30Z</time>
      </trkpt>
      <trkpt lat="42.51936" lon="0.21486">
        <ele>1005.8</ele>
        <time>2016-07-23T09:47:39Z</time>
      </trkpt>
      <trkpt lat="42.51939" lon="0.21485">
        <ele>1005.6</ele>
        <time>2016-07-23T09:47:55Z</time>
      </trkpt>
      <trkpt lat="42.51942" lon="0.21485">
        <ele>1005.3</ele>
        <time>2016-07-23T09:47:57Z</time>
      </trkpt>
      <trkpt lat="42.5194" lon="0.21489">
        <ele>1004.1</ele>
        <time>2016-07-23T09:48:03Z</time>
      </trkpt>
      <trkpt lat="42.51937" lon="0.2149">
        <ele>1004.2</ele>
        <time>2016-07-23T09:48:06Z</time>
      </trkpt>
      <trkpt lat="42.51937" lon="0.21495">
        <ele>1002.5</ele>
        <time>2016-07-23T09:48:09Z</time>
      </trkpt>
      <trkpt lat="42.51939" lon="0.215">
        <ele>1000.7</ele>
        <time>2016-07-23T09:48:11Z</time>
      </trkpt>
      <trkpt lat="42.51941" lon="0.21505">
        <ele>998.8</ele>
        <time>2016-07-23T09:48:13Z</time>
      </trkpt>
      <trkpt lat="42.51941" lon="0.21509">
        <ele>997.4</ele>
        <time>2016-07-23T09:48:15Z</time>
      </trkpt>
      <trkpt lat="42.51943" lon="0.21512">
        <ele>996.1</ele>
        <time>2016-07-23T09:48:18Z</time>
      </trkpt>
      <trkpt lat="42.51946" lon="0.21513">
        <ele>995.5</ele>
        <time>2016-07-23T09:48:22Z</time>
      </trkpt>
      <trkpt lat="42.51949" lon="0.21514">
        <ele>994.8</ele>
        <time>2016-07-23T09:48:26Z</time>
      </trkpt>
      <trkpt lat="42.51952" lon="0.21517">
        <ele>993.4</ele>
        <time>2016-07-23T09:48:28Z</time>
      </trkpt>
      <trkpt lat="42.51953" lon="0.2152">
        <ele>992.1</ele>
        <time>2016-07-23T09:48:31Z</time>
      </trkpt>
      <trkpt lat="42.51951" lon="0.21523">
        <ele>991.5</ele>
        <time>2016-07-23T09:48:37Z</time>
      </trkpt>
      <trkpt lat="42.5195" lon="0.21526">
        <ele>990.6</ele>
        <time>2016-07-23T09:48:45Z</time>
      </trkpt>
      <trkpt lat="42.5195" lon="0.2153">
        <ele>989.4</ele>
        <time>2016-07-23T09:48:48Z</time>
      </trkpt>
      <trkpt lat="42.51951" lon="0.21534">
        <ele>987.6</ele>
        <time>2016-07-23T09:48:52Z</time>
      </trkpt>
      <trkpt lat="42.51953" lon="0.21539">
        <ele>985.8</ele>
        <time>2016-07-23T09:48:54Z</time>
      </trkpt>
      <trkpt lat="42.51956" lon="0.21546">
        <ele>983.5</ele>
        <time>2016-07-23T09:48:56Z</time>
      </trkpt>
      <trkpt lat="42.51958" lon="0.2155">
        <ele>982.1</ele>
        <time>2016-07-23T09:48:58Z</time>
      </trkpt>
      <trkpt lat="42.51961" lon="0.21554">
        <ele>981</ele>
        <time>2016-07-23T09:49:00Z</time>
      </trkpt>
      <trkpt lat="42.51964" lon="0.21556">
        <ele>980.1</ele>
        <time>2016-07-23T09:49:02Z</time>
      </trkpt>
      <trkpt lat="42.51965" lon="0.2156">
        <ele>979.1</ele>
        <time>2016-07-23T09:49:05Z</time>
      </trkpt>
      <trkpt lat="42.51964" lon="0.21564">
        <ele>978.2</ele>
        <time>2016-07-23T09:49:07Z</time>
      </trkpt>
      <trkpt lat="42.51964" lon="0.21569">
        <ele>977.2</ele>
        <time>2016-07-23T09:49:10Z</time>
      </trkpt>
      <trkpt lat="42.51966" lon="0.21576">
        <ele>975.3</ele>
        <time>2016-07-23T09:49:12Z</time>
      </trkpt>
      <trkpt lat="42.51967" lon="0.21579">
        <ele>974.4</ele>
        <time>2016-07-23T09:49:13Z</time>
      </trkpt>
      <trkpt lat="42.51969" lon="0.21585">
        <ele>972.7</ele>
        <time>2016-07-23T09:49:15Z</time>
      </trkpt>
      <trkpt lat="42.51971" lon="0.21589">
        <ele>971.6</ele>
        <time>2016-07-23T09:49:16Z</time>
      </trkpt>
      <trkpt lat="42.51972" lon="0.21593">
        <ele>970.5</ele>
        <time>2016-07-23T09:49:17Z</time>
      </trkpt>
      <trkpt lat="42.51974" lon="0.21598">
        <ele>969.3</ele>
        <time>2016-07-23T09:49:18Z</time>
      </trkpt>
      <trkpt lat="42.51976" lon="0.21601">
        <ele>968.2</ele>
        <time>2016-07-23T09:49:19Z</time>
      </trkpt>
      <trkpt lat="42.51978" lon="0.21605">
        <ele>967.1</ele>
        <time>2016-07-23T09:49:20Z</time>
      </trkpt>
      <trkpt lat="42.5198" lon="0.21609">
        <ele>966</ele>
        <time>2016-07-23T09:49:21Z</time>
      </trkpt>
      <trkpt lat="42.51981" lon="0.21612">
        <ele>965</ele>
        <time>2016-07-23T09:49:22Z</time>
      </trkpt>
      <trkpt lat="42.51983" lon="0.21616">
        <ele>964</ele>
        <time>2016-07-23T09:49:23Z</time>
      </trkpt>
      <trkpt lat="42.51984" lon="0.2162">
        <ele>962.9</ele>
        <time>2016-07-23T09:49:24Z</time>
      </trkpt>
      <trkpt lat="42.51985" lon="0.21624">
        <ele>961.7</ele>
        <time>2016-07-23T09:49:25Z</time>
      </trkpt>
      <trkpt lat="42.51985" lon="0.21628">
        <ele>960.6</ele>
        <time>2016-07-23T09:49:26Z</time>
      </trkpt>
      <trkpt lat="42.51985" lon="0.21633">
        <ele>959.1</ele>
        <time>2016-07-23T09:49:28Z</time>
      </trkpt>
      <trkpt lat="42.51987" lon="0.21639">
        <ele>957.1</ele>
        <time>2016-07-23T09:49:30Z</time>
      </trkpt>
      <trkpt lat="42.5199" lon="0.21645">
        <ele>955.2</ele>
        <time>2016-07-23T09:49:32Z</time>
      </trkpt>
      <trkpt lat="42.51992" lon="0.21648">
        <ele>954.1</ele>
        <time>2016-07-23T09:49:33Z</time>
      </trkpt>
      <trkpt lat="42.51994" lon="0.21651">
        <ele>953</ele>
        <time>2016-07-23T09:49:34Z</time>
      </trkpt>
      <trkpt lat="42.51997" lon="0.21654">
        <ele>951.6</ele>
        <time>2016-07-23T09:49:36Z</time>
      </trkpt>
      <trkpt lat="42.52" lon="0.21654">
        <ele>951.3</ele>
        <time>2016-07-23T09:49:40Z</time>
      </trkpt>
      <trkpt lat="42.52002" lon="0.21658">
        <ele>950.1</ele>
        <time>2016-07-23T09:49:49Z</time>
      </trkpt>
      <trkpt lat="42.52005" lon="0.21659">
        <ele>949.5</ele>
        <time>2016-07-23T09:49:52Z</time>
      </trkpt>
      <trkpt lat="42.52007" lon="0.21663">
        <ele>948.1</ele>
        <time>2016-07-23T09:49:56Z</time>
      </trkpt>
      <trkpt lat="42.52005" lon="0.21667">
        <ele>947</ele>
        <time>2016-07-23T09:50:08Z</time>
      </trkpt>
      <trkpt lat="42.52003" lon="0.2167">
        <ele>946.5</ele>
        <time>2016-07-23T09:50:10Z</time>
      </trkpt>
      <trkpt lat="42.52001" lon="0.21676">
        <ele>945.1</ele>
        <time>2016-07-23T09:50:12Z</time>
      </trkpt>
      <trkpt lat="42.52002" lon="0.2168">
        <ele>943.9</ele>
        <time>2016-07-23T09:50:14Z</time>
      </trkpt>
      <trkpt lat="42.52002" lon="0.21684">
        <ele>942.7</ele>
        <time>2016-07-23T09:50:16Z</time>
      </trkpt>
      <trkpt lat="42.52002" lon="0.21688">
        <ele>941.5</ele>
        <time>2016-07-23T09:50:18Z</time>
      </trkpt>
      <trkpt lat="42.52" lon="0.21692">
        <ele>940.5</ele>
        <time>2016-07-23T09:50:20Z</time>
      </trkpt>
      <trkpt lat="42.51998" lon="0.21698">
        <ele>939.1</ele>
        <time>2016-07-23T09:50:22Z</time>
      </trkpt>
      <trkpt lat="42.51998" lon="0.21702">
        <ele>938</ele>
        <time>2016-07-23T09:50:23Z</time>
      </trkpt>
      <trkpt lat="42.51998" lon="0.21706">
        <ele>936.8</ele>
        <time>2016-07-23T09:50:24Z</time>
      </trkpt>
      <trkpt lat="42.52" lon="0.2171">
        <ele>935.5</ele>
        <time>2016-07-23T09:50:25Z</time>
      </trkpt>
      <trkpt lat="42.52002" lon="0.21713">
        <ele>934.1</ele>
        <time>2016-07-23T09:50:26Z</time>
      </trkpt>
      <trkpt lat="42.52004" lon="0.21718">
        <ele>932</ele>
        <time>2016-07-23T09:50:28Z</time>
      </trkpt>
      <trkpt lat="42.52005" lon="0.21723">
        <ele>930</ele>
        <time>2016-07-23T09:50:30Z</time>
      </trkpt>
      <trkpt lat="42.52005" lon="0.21727">
        <ele>928.6</ele>
        <time>2016-07-23T09:50:35Z</time>
      </trkpt>
      <trkpt lat="42.52005" lon="0.21732">
        <ele>926.5</ele>
        <time>2016-07-23T09:50:41Z</time>
      </trkpt>
      <trkpt lat="42.52007" lon="0.21739">
        <ele>923.7</ele>
        <time>2016-07-23T09:50:43Z</time>
      </trkpt>
      <trkpt lat="42.5201" lon="0.21743">
        <ele>922</ele>
        <time>2016-07-23T09:50:45Z</time>
      </trkpt>
      <trkpt lat="42.52014" lon="0.21745">
        <ele>921.2</ele>
        <time>2016-07-23T09:50:48Z</time>
      </trkpt>
      <trkpt lat="42.52019" lon="0.21748">
        <ele>919.8</ele>
        <time>2016-07-23T09:50:50Z</time>
      </trkpt>
      <trkpt lat="42.52021" lon="0.2175">
        <ele>918.6</ele>
        <time>2016-07-23T09:50:51Z</time>
      </trkpt>
      <trkpt lat="42.52023" lon="0.21753">
        <ele>917.4</ele>
        <time>2016-07-23T09:50:52Z</time>
      </trkpt>
      <trkpt lat="42.52025" lon="0.21757">
        <ele>915.8</ele>
        <time>2016-07-23T09:50:54Z</time>
      </trkpt>
      <trkpt lat="42.52028" lon="0.21759">
        <ele>914.8</ele>
        <time>2016-07-23T09:50:56Z</time>
      </trkpt>
      <trkpt lat="42.52031" lon="0.21763">
        <ele>913.2</ele>
        <time>2016-07-23T09:50:58Z</time>
      </trkpt>
      <trkpt lat="42.52035" lon="0.21767">
        <ele>911.4</ele>
        <time>2016-07-23T09:51:00Z</time>
      </trkpt>
      <trkpt lat="42.52038" lon="0.21769">
        <ele>910.7</ele>
        <time>2016-07-23T09:51:01Z</time>
      </trkpt>
      <trkpt lat="42.5204" lon="0.2177">
        <ele>910.2</ele>
        <time>2016-07-23T09:51:02Z</time>
      </trkpt>
      <trkpt lat="42.52045" lon="0.2177">
        <ele>910</ele>
        <time>2016-07-23T09:51:04Z</time>
      </trkpt>
      <trkpt lat="42.52049" lon="0.21772">
        <ele>908.8</ele>
        <time>2016-07-23T09:51:06Z</time>
      </trkpt>
      <trkpt lat="42.5205" lon="0.21776">
        <ele>907.5</ele>
        <time>2016-07-23T09:51:07Z</time>
      </trkpt>
      <trkpt lat="42.52051" lon="0.2178">
        <ele>905.8</ele>
        <time>2016-07-23T09:51:08Z</time>
      </trkpt>
      <trkpt lat="42.52052" lon="0.21785">
        <ele>903.8</ele>
        <time>2016-07-23T09:51:09Z</time>
      </trkpt>
      <trkpt lat="42.52053" lon="0.21789">
        <ele>902.3</ele>
        <time>2016-07-23T09:51:10Z</time>
      </trkpt>
      <trkpt lat="42.52056" lon="0.21793">
        <ele>900.9</ele>
        <time>2016-07-23T09:51:11Z</time>
      </trkpt>
      <trkpt lat="42.5206" lon="0.21796">
        <ele>899.6</ele>
        <time>2016-07-23T09:51:12Z</time>
      </trkpt>
      <trkpt lat="42.52064" lon="0.21797">
        <ele>899.1</ele>
        <time>2016-07-23T09:51:13Z</time>
      </trkpt>
      <trkpt lat="42.52069" lon="0.21796">
        <ele>899.2</ele>
        <time>2016-07-23T09:51:14Z</time>
      </trkpt>
      <trkpt lat="42.52074" lon="0.21794">
        <ele>899.9</ele>
        <time>2016-07-23T09:51:15Z</time>
      </trkpt>
      <trkpt lat="42.52078" lon="0.21789">
        <ele>901.1</ele>
        <time>2016-07-23T09:51:16Z</time>
      </trkpt>
      <trkpt lat="42.52081" lon="0.21786">
        <ele>902.3</ele>
        <time>2016-07-23T09:51:17Z</time>
      </trkpt>
      <trkpt lat="42.52085" lon="0.21782">
        <ele>903.4</ele>
        <time>2016-07-23T09:51:18Z</time>
      </trkpt>
      <trkpt lat="42.52089" lon="0.21779">
        <ele>904.4</ele>
        <time>2016-07-23T09:51:19Z</time>
      </trkpt>
      <trkpt lat="42.52092" lon="0.21775">
        <ele>905.3</ele>
        <time>2016-07-23T09:51:20Z</time>
      </trkpt>
      <trkpt lat="42.52095" lon="0.21773">
        <ele>906</ele>
        <time>2016-07-23T09:51:21Z</time>
      </trkpt>
      <trkpt lat="42.52099" lon="0.2177">
        <ele>906.7</ele>
        <time>2016-07-23T09:51:23Z</time>
      </trkpt>
      <trkpt lat="42.52102" lon="0.2177">
        <ele>906.7</ele>
        <time>2016-07-23T09:51:24Z</time>
      </trkpt>
      <trkpt lat="42.52105" lon="0.21769">
        <ele>906.8</ele>
        <time>2016-07-23T09:51:25Z</time>
      </trkpt>
      <trkpt lat="42.52108" lon="0.21768">
        <ele>906.9</ele>
        <time>2016-07-23T09:51:26Z</time>
      </trkpt>
      <trkpt lat="42.52111" lon="0.21767">
        <ele>907.3</ele>
        <time>2016-07-23T09:51:28Z</time>
      </trkpt>
      <trkpt lat="42.52114" lon="0.21766">
        <ele>907.4</ele>
        <time>2016-07-23T09:51:30Z</time>
      </trkpt>
      <trkpt lat="42.52117" lon="0.21767">
        <ele>906.9</ele>
        <time>2016-07-23T09:51:32Z</time>
      </trkpt>
      <trkpt lat="42.5212" lon="0.2177">
        <ele>905.8</ele>
        <time>2016-07-23T09:51:34Z</time>
      </trkpt>
      <trkpt lat="42.52124" lon="0.21773">
        <ele>904.3</ele>
        <time>2016-07-23T09:51:36Z</time>
      </trkpt>
      <trkpt lat="42.52127" lon="0.21774">
        <ele>903.5</ele>
        <time>2016-07-23T09:51:38Z</time>
      </trkpt>
      <trkpt lat="42.5213" lon="0.21772">
        <ele>903.3</ele>
        <time>2016-07-23T09:51:40Z</time>
      </trkpt>
      <trkpt lat="42.52132" lon="0.21776">
        <ele>901.6</ele>
        <time>2016-07-23T09:51:46Z</time>
      </trkpt>
      <trkpt lat="42.52134" lon="0.21779">
        <ele>900.1</ele>
        <time>2016-07-23T09:51:48Z</time>
      </trkpt>
      <trkpt lat="42.52138" lon="0.21782">
        <ele>898.2</ele>
        <time>2016-07-23T09:51:50Z</time>
      </trkpt>
      <trkpt lat="42.52141" lon="0.21785">
        <ele>896.2</ele>
        <time>2016-07-23T09:51:52Z</time>
      </trkpt>
      <trkpt lat="42.52145" lon="0.21789">
        <ele>894.1</ele>
        <time>2016-07-23T09:51:55Z</time>
      </trkpt>
      <trkpt lat="42.52148" lon="0.21793">
        <ele>891.9</ele>
        <time>2016-07-23T09:51:57Z</time>
      </trkpt>
      <trkpt lat="42.52151" lon="0.21794">
        <ele>890.7</ele>
        <time>2016-07-23T09:51:59Z</time>
      </trkpt>
      <trkpt lat="42.5215" lon="0.21789">
        <ele>892.5</ele>
        <time>2016-07-23T09:52:37Z</time>
      </trkpt>
      <trkpt lat="42.52152" lon="0.21786">
        <ele>893.2</ele>
        <time>2016-07-23T09:52:39Z</time>
      </trkpt>
      <trkpt lat="42.52154" lon="0.21781">
        <ele>894.2</ele>
        <time>2016-07-23T09:52:41Z</time>
      </trkpt>
      <trkpt lat="42.52156" lon="0.21776">
        <ele>895.5</ele>
        <time>2016-07-23T09:52:43Z</time>
      </trkpt>
      <trkpt lat="42.52156" lon="0.21771">
        <ele>897</ele>
        <time>2016-07-23T09:52:45Z</time>
      </trkpt>
      <trkpt lat="42.52157" lon="0.21768">
        <ele>898.1</ele>
        <time>2016-07-23T09:52:50Z</time>
      </trkpt>
      <trkpt lat="42.5216" lon="0.21765">
        <ele>898.3</ele>
        <time>2016-07-23T09:52:54Z</time>
      </trkpt>
      <trkpt lat="42.52163" lon="0.21765">
        <ele>897.3</ele>
        <time>2016-07-23T09:52:56Z</time>
      </trkpt>
      <trkpt lat="42.52167" lon="0.21766">
        <ele>896.1</ele>
        <time>2016-07-23T09:52:58Z</time>
      </trkpt>
      <trkpt lat="42.52171" lon="0.21767">
        <ele>894.6</ele>
        <time>2016-07-23T09:53:00Z</time>
      </trkpt>
      <trkpt lat="42.52174" lon="0.21768">
        <ele>893.5</ele>
        <time>2016-07-23T09:53:01Z</time>
      </trkpt>
      <trkpt lat="42.52177" lon="0.2177">
        <ele>892.3</ele>
        <time>2016-07-23T09:53:02Z</time>
      </trkpt>
      <trkpt lat="42.52179" lon="0.21772">
        <ele>891</ele>
        <time>2016-07-23T09:53:03Z</time>
      </trkpt>
      <trkpt lat="42.52182" lon="0.21774">
        <ele>889.7</ele>
        <time>2016-07-23T09:53:04Z</time>
      </trkpt>
      <trkpt lat="42.52186" lon="0.21775">
        <ele>888.3</ele>
        <time>2016-07-23T09:53:05Z</time>
      </trkpt>
      <trkpt lat="42.5219" lon="0.21775">
        <ele>887.3</ele>
        <time>2016-07-23T09:53:06Z</time>
      </trkpt>
      <trkpt lat="42.52193" lon="0.21775">
        <ele>886.6</ele>
        <time>2016-07-23T09:53:07Z</time>
      </trkpt>
      <trkpt lat="42.52196" lon="0.21775">
        <ele>885.7</ele>
        <time>2016-07-23T09:53:08Z</time>
      </trkpt>
      <trkpt lat="42.52199" lon="0.21777">
        <ele>884.3</ele>
        <time>2016-07-23T09:53:09Z</time>
      </trkpt>
      <trkpt lat="42.52203" lon="0.21779">
        <ele>882.7</ele>
        <time>2016-07-23T09:53:10Z</time>
      </trkpt>
      <trkpt lat="42.52207" lon="0.21781">
        <ele>881.1</ele>
        <time>2016-07-23T09:53:11Z</time>
      </trkpt>
      <trkpt lat="42.52211" lon="0.21782">
        <ele>879.9</ele>
        <time>2016-07-23T09:53:12Z</time>
      </trkpt>
      <trkpt lat="42.52214" lon="0.21783">
        <ele>879.2</ele>
        <time>2016-07-23T09:53:13Z</time>
      </trkpt>
      <trkpt lat="42.52218" lon="0.21783">
        <ele>878.8</ele>
        <time>2016-07-23T09:53:14Z</time>
      </trkpt>
      <trkpt lat="42.52223" lon="0.21783">
        <ele>878</ele>
        <time>2016-07-23T09:53:16Z</time>
      </trkpt>
      <trkpt lat="42.52227" lon="0.21784">
        <ele>877.3</ele>
        <time>2016-07-23T09:53:17Z</time>
      </trkpt>
      <trkpt lat="42.5223" lon="0.21785">
        <ele>876.5</ele>
        <time>2016-07-23T09:53:18Z</time>
      </trkpt>
      <trkpt lat="42.52235" lon="0.21787">
        <ele>875.1</ele>
        <time>2016-07-23T09:53:20Z</time>
      </trkpt>
      <trkpt lat="42.52238" lon="0.21788">
        <ele>874.3</ele>
        <time>2016-07-23T09:53:21Z</time>
      </trkpt>
      <trkpt lat="42.52241" lon="0.2179">
        <ele>873.4</ele>
        <time>2016-07-23T09:53:22Z</time>
      </trkpt>
      <trkpt lat="42.52245" lon="0.21791">
        <ele>872.3</ele>
        <time>2016-07-23T09:53:23Z</time>
      </trkpt>
      <trkpt lat="42.52249" lon="0.21793">
        <ele>871.2</ele>
        <time>2016-07-23T09:53:24Z</time>
      </trkpt>
      <trkpt lat="42.52252" lon="0.21795">
        <ele>870.1</ele>
        <time>2016-07-23T09:53:25Z</time>
      </trkpt>
      <trkpt lat="42.52257" lon="0.21798">
        <ele>868.6</ele>
        <time>2016-07-23T09:53:26Z</time>
      </trkpt>
      <trkpt lat="42.5226" lon="0.21802">
        <ele>867.2</ele>
        <time>2016-07-23T09:53:27Z</time>
      </trkpt>
      <trkpt lat="42.52263" lon="0.21805">
        <ele>865.8</ele>
        <time>2016-07-23T09:53:28Z</time>
      </trkpt>
      <trkpt lat="42.52266" lon="0.21808">
        <ele>864.5</ele>
        <time>2016-07-23T09:53:29Z</time>
      </trkpt>
      <trkpt lat="42.5227" lon="0.2181">
        <ele>863.2</ele>
        <time>2016-07-23T09:53:30Z</time>
      </trkpt>
      <trkpt lat="42.52273" lon="0.21812">
        <ele>862.3</ele>
        <time>2016-07-23T09:53:31Z</time>
      </trkpt>
      <trkpt lat="42.52278" lon="0.21813">
        <ele>861.5</ele>
        <time>2016-07-23T09:53:33Z</time>
      </trkpt>
      <trkpt lat="42.52281" lon="0.2181">
        <ele>861.8</ele>
        <time>2016-07-23T09:53:35Z</time>
      </trkpt>
      <trkpt lat="42.52285" lon="0.21812">
        <ele>860.9</ele>
        <time>2016-07-23T09:53:38Z</time>
      </trkpt>
      <trkpt lat="42.52286" lon="0.21816">
        <ele>859.6</ele>
        <time>2016-07-23T09:53:40Z</time>
      </trkpt>
      <trkpt lat="42.52286" lon="0.21819">
        <ele>858.4</ele>
        <time>2016-07-23T09:53:43Z</time>
      </trkpt>
      <trkpt lat="42.52291" lon="0.21823">
        <ele>856.6</ele>
        <time>2016-07-23T09:53:45Z</time>
      </trkpt>
      <trkpt lat="42.52294" lon="0.21825">
        <ele>855.7</ele>
        <time>2016-07-23T09:53:46Z</time>
      </trkpt>
      <trkpt lat="42.52298" lon="0.21826">
        <ele>855</ele>
        <time>2016-07-23T09:53:47Z</time>
      </trkpt>
      <trkpt lat="42.52302" lon="0.21827">
        <ele>854.2</ele>
        <time>2016-07-23T09:53:48Z</time>
      </trkpt>
      <trkpt lat="42.52304" lon="0.21828">
        <ele>853.5</ele>
        <time>2016-07-23T09:53:49Z</time>
      </trkpt>
      <trkpt lat="42.52309" lon="0.21832">
        <ele>851.8</ele>
        <time>2016-07-23T09:53:51Z</time>
      </trkpt>
      <trkpt lat="42.52311" lon="0.21836">
        <ele>850.1</ele>
        <time>2016-07-23T09:53:53Z</time>
      </trkpt>
      <trkpt lat="42.5231" lon="0.2184">
        <ele>849.4</ele>
        <time>2016-07-23T09:53:56Z</time>
      </trkpt>
      <trkpt lat="42.52306" lon="0.2184">
        <ele>849.6</ele>
        <time>2016-07-23T09:53:59Z</time>
      </trkpt>
      <trkpt lat="42.52303" lon="0.21842">
        <ele>849.4</ele>
        <time>2016-07-23T09:54:01Z</time>
      </trkpt>
      <trkpt lat="42.52298" lon="0.21846">
        <ele>849</ele>
        <time>2016-07-23T09:54:03Z</time>
      </trkpt>
      <trkpt lat="42.52295" lon="0.21847">
        <ele>849</ele>
        <time>2016-07-23T09:54:04Z</time>
      </trkpt>
      <trkpt lat="42.52293" lon="0.21848">
        <ele>848.9</ele>
        <time>2016-07-23T09:54:05Z</time>
      </trkpt>
      <trkpt lat="42.5229" lon="0.2185">
        <ele>848.7</ele>
        <time>2016-07-23T09:54:06Z</time>
      </trkpt>
      <trkpt lat="42.52286" lon="0.21853">
        <ele>848.2</ele>
        <time>2016-07-23T09:54:07Z</time>
      </trkpt>
      <trkpt lat="42.52279" lon="0.21859">
        <ele>847.3</ele>
        <time>2016-07-23T09:54:09Z</time>
      </trkpt>
      <trkpt lat="42.52276" lon="0.21862">
        <ele>846.9</ele>
        <time>2016-07-23T09:54:10Z</time>
      </trkpt>
      <trkpt lat="42.52273" lon="0.21864">
        <ele>846.6</ele>
        <time>2016-07-23T09:54:11Z</time>
      </trkpt>
      <trkpt lat="42.5227" lon="0.21865">
        <ele>846.5</ele>
        <time>2016-07-23T09:54:12Z</time>
      </trkpt>
      <trkpt lat="42.52267" lon="0.21866">
        <ele>846.7</ele>
        <time>2016-07-23T09:54:13Z</time>
      </trkpt>
      <trkpt lat="42.52264" lon="0.21866">
        <ele>847</ele>
        <time>2016-07-23T09:54:14Z</time>
      </trkpt>
      <trkpt lat="42.52261" lon="0.21867">
        <ele>847</ele>
        <time>2016-07-23T09:54:15Z</time>
      </trkpt>
      <trkpt lat="42.52258" lon="0.2187">
        <ele>846.6</ele>
        <time>2016-07-23T09:54:16Z</time>
      </trkpt>
      <trkpt lat="42.52255" lon="0.21874">
        <ele>845.7</ele>
        <time>2016-07-23T09:54:17Z</time>
      </trkpt>
      <trkpt lat="42.52253" lon="0.21878">
        <ele>845.5</ele>
        <time>2016-07-23T09:54:18Z</time>
      </trkpt>
      <trkpt lat="42.52256" lon="0.21879">
        <ele>845.1</ele>
        <time>2016-07-23T09:54:22Z</time>
      </trkpt>
      <trkpt lat="42.5226" lon="0.21879">
        <ele>844.6</ele>
        <time>2016-07-23T09:54:25Z</time>
      </trkpt>
      <trkpt lat="42.52263" lon="0.21882">
        <ele>844.1</ele>
        <time>2016-07-23T09:54:27Z</time>
      </trkpt>
      <trkpt lat="42.52264" lon="0.21885">
        <ele>843.7</ele>
        <time>2016-07-23T09:54:29Z</time>
      </trkpt>
      <trkpt lat="42.52267" lon="0.21886">
        <ele>843.2</ele>
        <time>2016-07-23T09:54:33Z</time>
      </trkpt>
      <trkpt lat="42.52273" lon="0.21882">
        <ele>842.7</ele>
        <time>2016-07-23T09:54:35Z</time>
      </trkpt>
      <trkpt lat="42.52276" lon="0.2188">
        <ele>842.5</ele>
        <time>2016-07-23T09:54:37Z</time>
      </trkpt>
      <trkpt lat="42.5228" lon="0.21882">
        <ele>841.9</ele>
        <time>2016-07-23T09:54:40Z</time>
      </trkpt>
      <trkpt lat="42.52279" lon="0.21886">
        <ele>841.7</ele>
        <time>2016-07-23T09:54:43Z</time>
      </trkpt>
      <trkpt lat="42.52276" lon="0.21888">
        <ele>841.8</ele>
        <time>2016-07-23T09:54:46Z</time>
      </trkpt>
      <trkpt lat="42.52273" lon="0.21891">
        <ele>842.1</ele>
        <time>2016-07-23T09:54:48Z</time>
      </trkpt>
      <trkpt lat="42.52267" lon="0.21895">
        <ele>842.6</ele>
        <time>2016-07-23T09:54:50Z</time>
      </trkpt>
      <trkpt lat="42.52263" lon="0.219">
        <ele>843</ele>
        <time>2016-07-23T09:54:51Z</time>
      </trkpt>
      <trkpt lat="42.52257" lon="0.21906">
        <ele>843.6</ele>
        <time>2016-07-23T09:54:52Z</time>
      </trkpt>
      <trkpt lat="42.52235" lon="0.21929">
        <ele>846.6</ele>
        <time>2016-07-23T09:54:54Z</time>
      </trkpt>
      <trkpt lat="42.52232" lon="0.21932">
        <ele>847</ele>
        <time>2016-07-23T09:54:55Z</time>
      </trkpt>
      <trkpt lat="42.52229" lon="0.21937">
        <ele>847.5</ele>
        <time>2016-07-23T09:54:56Z</time>
      </trkpt>
      <trkpt lat="42.52226" lon="0.21942">
        <ele>848.2</ele>
        <time>2016-07-23T09:54:58Z</time>
      </trkpt>
      <trkpt lat="42.52246" lon="0.21912">
        <ele>845.1</ele>
        <time>2016-07-23T09:55:00Z</time>
      </trkpt>
      <trkpt lat="42.52249" lon="0.21909">
        <ele>844.8</ele>
        <time>2016-07-23T09:55:01Z</time>
      </trkpt>
      <trkpt lat="42.52251" lon="0.21905">
        <ele>844.6</ele>
        <time>2016-07-23T09:55:02Z</time>
      </trkpt>
      <trkpt lat="42.52277" lon="0.21871">
        <ele>844.1</ele>
        <time>2016-07-23T09:55:04Z</time>
      </trkpt>
      <trkpt lat="42.52279" lon="0.21868">
        <ele>844.6</ele>
        <time>2016-07-23T09:55:05Z</time>
      </trkpt>
      <trkpt lat="42.52282" lon="0.21866">
        <ele>845</ele>
        <time>2016-07-23T09:55:07Z</time>
      </trkpt>
      <trkpt lat="42.5228" lon="0.21869">
        <ele>844.2</ele>
        <time>2016-07-23T09:55:10Z</time>
      </trkpt>
      <trkpt lat="42.52278" lon="0.21873">
        <ele>843.4</ele>
        <time>2016-07-23T09:55:11Z</time>
      </trkpt>
      <trkpt lat="42.52275" lon="0.21877">
        <ele>842.8</ele>
        <time>2016-07-23T09:55:12Z</time>
      </trkpt>
      <trkpt lat="42.52273" lon="0.21882">
        <ele>842.8</ele>
        <time>2016-07-23T09:55:13Z</time>
      </trkpt>
      <trkpt lat="42.52271" lon="0.21886">
        <ele>842.8</ele>
        <time>2016-07-23T09:55:14Z</time>
      </trkpt>
      <trkpt lat="42.52274" lon="0.21886">
        <ele>842.4</ele>
        <time>2016-07-23T09:55:19Z</time>
      </trkpt>
      <trkpt lat="42.52277" lon="0.21882">
        <ele>842.3</ele>
        <time>2016-07-23T09:55:21Z</time>
      </trkpt>
      <trkpt lat="42.52279" lon="0.21879">
        <ele>842.2</ele>
        <time>2016-07-23T09:55:23Z</time>
      </trkpt>
      <trkpt lat="42.52282" lon="0.21877">
        <ele>842</ele>
        <time>2016-07-23T09:55:26Z</time>
      </trkpt>
      <trkpt lat="42.52285" lon="0.21877">
        <ele>841.6</ele>
        <time>2016-07-23T09:55:30Z</time>
      </trkpt>
      <trkpt lat="42.52286" lon="0.21882">
        <ele>841.1</ele>
        <time>2016-07-23T09:55:37Z</time>
      </trkpt>
      <trkpt lat="42.5229" lon="0.21882">
        <ele>840.6</ele>
        <time>2016-07-23T09:55:46Z</time>
      </trkpt>
      <trkpt lat="42.52288" lon="0.21886">
        <ele>840.4</ele>
        <time>2016-07-23T09:55:50Z</time>
      </trkpt>
      <trkpt lat="42.52286" lon="0.2189">
        <ele>840.3</ele>
        <time>2016-07-23T09:55:52Z</time>
      </trkpt>
      <trkpt lat="42.5229" lon="0.2189">
        <ele>839.9</ele>
        <time>2016-07-23T09:55:57Z</time>
      </trkpt>
      <trkpt lat="42.52291" lon="0.21893">
        <ele>839.4</ele>
        <time>2016-07-23T09:56:02Z</time>
      </trkpt>
      <trkpt lat="42.52277" lon="0.219">
        <ele>840.8</ele>
        <time>2016-07-23T09:58:37Z</time>
      </trkpt>
      <trkpt lat="42.52277" lon="0.21896">
        <ele>841.2</ele>
        <time>2016-07-23T09:58:42Z</time>
      </trkpt>
      <trkpt lat="42.52283" lon="0.21895">
        <ele>840.3</ele>
        <time>2016-07-23T09:58:52Z</time>
      </trkpt>
      <trkpt lat="42.52281" lon="0.21897">
        <ele>840.5</ele>
        <time>2016-07-23T10:04:23Z</time>
      </trkpt>
      <trkpt lat="42.5228" lon="0.219">
        <ele>840.3</ele>
        <time>2016-07-23T10:04:31Z</time>
      </trkpt>
      <trkpt lat="42.52288" lon="0.21908">
        <ele>838.5</ele>
        <time>2016-07-23T10:06:10Z</time>
      </trkpt>
      <trkpt lat="42.5229" lon="0.2191">
        <ele>837.9</ele>
        <time>2016-07-23T10:06:14Z</time>
      </trkpt>
      <trkpt lat="42.52288" lon="0.21907">
        <ele>838.6</ele>
        <time>2016-07-23T10:06:18Z</time>
      </trkpt>
      <trkpt lat="42.52286" lon="0.21904">
        <ele>839.2</ele>
        <time>2016-07-23T10:06:23Z</time>
      </trkpt>
      <trkpt lat="42.52287" lon="0.21908">
        <ele>838.7</ele>
        <time>2016-07-23T10:06:29Z</time>
      </trkpt>
      <trkpt lat="42.52287" lon="0.21903">
        <ele>839.1</ele>
        <time>2016-07-23T10:06:36Z</time>
      </trkpt>
      <trkpt lat="42.52285" lon="0.219">
        <ele>839.6</ele>
        <time>2016-07-23T10:06:39Z</time>
      </trkpt>
      <trkpt lat="42.52285" lon="0.21904">
        <ele>839.2</ele>
        <time>2016-07-23T10:06:46Z</time>
      </trkpt>
      <trkpt lat="42.52287" lon="0.21907">
        <ele>838.7</ele>
        <time>2016-07-23T10:06:48Z</time>
      </trkpt>
      <trkpt lat="42.5229" lon="0.21907">
        <ele>838.1</ele>
        <time>2016-07-23T10:06:52Z</time>
      </trkpt>
      <trkpt lat="42.52293" lon="0.21905">
        <ele>837.9</ele>
        <time>2016-07-23T10:06:57Z</time>
      </trkpt>
      <trkpt lat="42.52295" lon="0.21902">
        <ele>837.9</ele>
        <time>2016-07-23T10:07:11Z</time>
      </trkpt>
      <trkpt lat="42.52297" lon="0.21905">
        <ele>837.3</ele>
        <time>2016-07-23T10:07:14Z</time>
      </trkpt>
      <trkpt lat="42.52297" lon="0.21901">
        <ele>837.7</ele>
        <time>2016-07-23T10:07:22Z</time>
      </trkpt>
      <trkpt lat="42.52295" lon="0.21898">
        <ele>838.3</ele>
        <time>2016-07-23T10:07:25Z</time>
      </trkpt>
      <trkpt lat="42.52297" lon="0.21901">
        <ele>837.8</ele>
        <time>2016-07-23T10:07:38Z</time>
      </trkpt>
      <trkpt lat="42.52299" lon="0.21905">
        <ele>837</ele>
        <time>2016-07-23T10:07:45Z</time>
      </trkpt>
      <trkpt lat="42.52312" lon="0.21909">
        <ele>834.5</ele>
        <time>2016-07-23T10:08:44Z</time>
      </trkpt>
      <trkpt lat="42.52315" lon="0.2191">
        <ele>833.9</ele>
        <time>2016-07-23T10:08:46Z</time>
      </trkpt>
      <trkpt lat="42.52318" lon="0.21914">
        <ele>833.1</ele>
        <time>2016-07-23T10:08:49Z</time>
      </trkpt>
      <trkpt lat="42.5232" lon="0.21917">
        <ele>832.3</ele>
        <time>2016-07-23T10:08:52Z</time>
      </trkpt>
      <trkpt lat="42.52323" lon="0.21919">
        <ele>831.7</ele>
        <time>2016-07-23T10:08:55Z</time>
      </trkpt>
      <trkpt lat="42.52327" lon="0.21921">
        <ele>830.8</ele>
        <time>2016-07-23T10:08:58Z</time>
      </trkpt>
      <trkpt lat="42.52332" lon="0.21922">
        <ele>829.9</ele>
        <time>2016-07-23T10:09:00Z</time>
      </trkpt>
      <trkpt lat="42.52334" lon="0.21923">
        <ele>829.3</ele>
        <time>2016-07-23T10:09:01Z</time>
      </trkpt>
      <trkpt lat="42.52338" lon="0.21925">
        <ele>828.4</ele>
        <time>2016-07-23T10:09:03Z</time>
      </trkpt>
      <trkpt lat="42.52342" lon="0.21926">
        <ele>827.6</ele>
        <time>2016-07-23T10:09:05Z</time>
      </trkpt>
      <trkpt lat="42.52346" lon="0.21928">
        <ele>826.7</ele>
        <time>2016-07-23T10:09:07Z</time>
      </trkpt>
      <trkpt lat="42.52348" lon="0.21929">
        <ele>826.1</ele>
        <time>2016-07-23T10:09:09Z</time>
      </trkpt>
      <trkpt lat="42.52351" lon="0.21931">
        <ele>825.4</ele>
        <time>2016-07-23T10:09:12Z</time>
      </trkpt>
      <trkpt lat="42.52356" lon="0.21932">
        <ele>824.5</ele>
        <time>2016-07-23T10:09:14Z</time>
      </trkpt>
      <trkpt lat="42.5236" lon="0.21934">
        <ele>823.4</ele>
        <time>2016-07-23T10:09:16Z</time>
      </trkpt>
      <trkpt lat="42.52365" lon="0.21936">
        <ele>822.2</ele>
        <time>2016-07-23T10:09:18Z</time>
      </trkpt>
      <trkpt lat="42.52369" lon="0.21939">
        <ele>821</ele>
        <time>2016-07-23T10:09:20Z</time>
      </trkpt>
      <trkpt lat="42.52374" lon="0.2194">
        <ele>820</ele>
        <time>2016-07-23T10:09:22Z</time>
      </trkpt>
      <trkpt lat="42.52377" lon="0.2194">
        <ele>819.4</ele>
        <time>2016-07-23T10:09:23Z</time>
      </trkpt>
      <trkpt lat="42.52379" lon="0.2194">
        <ele>818.5</ele>
        <time>2016-07-23T10:09:24Z</time>
      </trkpt>
      <trkpt lat="42.52384" lon="0.21939">
        <ele>817.1</ele>
        <time>2016-07-23T10:09:26Z</time>
      </trkpt>
      <trkpt lat="42.52388" lon="0.21938">
        <ele>816</ele>
        <time>2016-07-23T10:09:28Z</time>
      </trkpt>
      <trkpt lat="42.52391" lon="0.21939">
        <ele>815.1</ele>
        <time>2016-07-23T10:09:36Z</time>
      </trkpt>
      <trkpt lat="42.52393" lon="0.21936">
        <ele>814.8</ele>
        <time>2016-07-23T10:09:49Z</time>
      </trkpt>
      <trkpt lat="42.52396" lon="0.21934">
        <ele>814.2</ele>
        <time>2016-07-23T10:09:54Z</time>
      </trkpt>
      <trkpt lat="42.524" lon="0.21932">
        <ele>813.4</ele>
        <time>2016-07-23T10:09:57Z</time>
      </trkpt>
      <trkpt lat="42.52406" lon="0.21928">
        <ele>812.2</ele>
        <time>2016-07-23T10:10:00Z</time>
      </trkpt>
      <trkpt lat="42.52408" lon="0.21925">
        <ele>811.9</ele>
        <time>2016-07-23T10:10:02Z</time>
      </trkpt>
      <trkpt lat="42.52411" lon="0.21922">
        <ele>811.4</ele>
        <time>2016-07-23T10:10:04Z</time>
      </trkpt>
      <trkpt lat="42.52416" lon="0.2192">
        <ele>810</ele>
        <time>2016-07-23T10:10:06Z</time>
      </trkpt>
      <trkpt lat="42.52419" lon="0.2192">
        <ele>809.2</ele>
        <time>2016-07-23T10:10:07Z</time>
      </trkpt>
      <trkpt lat="42.52422" lon="0.21919">
        <ele>808.4</ele>
        <time>2016-07-23T10:10:08Z</time>
      </trkpt>
      <trkpt lat="42.52425" lon="0.21918">
        <ele>807.6</ele>
        <time>2016-07-23T10:10:09Z</time>
      </trkpt>
      <trkpt lat="42.52432" lon="0.21916">
        <ele>805.9</ele>
        <time>2016-07-23T10:14:19Z</time>
      </trkpt>
      <trkpt lat="42.52429" lon="0.21917">
        <ele>806.7</ele>
        <time>2016-07-23T10:14:22Z</time>
      </trkpt>
      <trkpt lat="42.52426" lon="0.21916">
        <ele>807.6</ele>
        <time>2016-07-23T10:14:25Z</time>
      </trkpt>
      <trkpt lat="42.52423" lon="0.21917">
        <ele>808.5</ele>
        <time>2016-07-23T10:14:29Z</time>
      </trkpt>
      <trkpt lat="42.5242" lon="0.21918">
        <ele>809.2</ele>
        <time>2016-07-23T10:14:33Z</time>
      </trkpt>
      <trkpt lat="42.52417" lon="0.2192">
        <ele>809.9</ele>
        <time>2016-07-23T10:14:37Z</time>
      </trkpt>
      <trkpt lat="42.52414" lon="0.21921">
        <ele>810.6</ele>
        <time>2016-07-23T10:14:40Z</time>
      </trkpt>
      <trkpt lat="42.52411" lon="0.21922">
        <ele>811.6</ele>
        <time>2016-07-23T10:14:43Z</time>
      </trkpt>
      <trkpt lat="42.52408" lon="0.21922">
        <ele>812.4</ele>
        <time>2016-07-23T10:14:46Z</time>
      </trkpt>
      <trkpt lat="42.52404" lon="0.21923">
        <ele>813.4</ele>
        <time>2016-07-23T10:14:50Z</time>
      </trkpt>
      <trkpt lat="42.52401" lon="0.21923">
        <ele>814.4</ele>
        <time>2016-07-23T10:14:53Z</time>
      </trkpt>
      <trkpt lat="42.52399" lon="0.21927">
        <ele>814.4</ele>
        <time>2016-07-23T10:14:59Z</time>
      </trkpt>
      <trkpt lat="42.52397" lon="0.2193">
        <ele>814.5</ele>
        <time>2016-07-23T10:15:04Z</time>
      </trkpt>
      <trkpt lat="42.52394" lon="0.21932">
        <ele>815.1</ele>
        <time>2016-07-23T10:15:09Z</time>
      </trkpt>
      <trkpt lat="42.52396" lon="0.21935">
        <ele>814.1</ele>
        <time>2016-07-23T10:15:13Z</time>
      </trkpt>
      <trkpt lat="42.524" lon="0.21935">
        <ele>813</ele>
        <time>2016-07-23T10:15:16Z</time>
      </trkpt>
      <trkpt lat="42.52402" lon="0.21936">
        <ele>812</ele>
        <time>2016-07-23T10:15:20Z</time>
      </trkpt>
      <trkpt lat="42.52405" lon="0.21938">
        <ele>810.9</ele>
        <time>2016-07-23T10:15:25Z</time>
      </trkpt>
      <trkpt lat="42.52407" lon="0.2194">
        <ele>809.8</ele>
        <time>2016-07-23T10:15:27Z</time>
      </trkpt>
      <trkpt lat="42.5241" lon="0.21941">
        <ele>808.8</ele>
        <time>2016-07-23T10:15:34Z</time>
      </trkpt>
      <trkpt lat="42.52411" lon="0.21945">
        <ele>807.8</ele>
        <time>2016-07-23T10:15:41Z</time>
      </trkpt>
      <trkpt lat="42.52414" lon="0.21946">
        <ele>806.6</ele>
        <time>2016-07-23T10:15:45Z</time>
      </trkpt>
      <trkpt lat="42.52415" lon="0.2195">
        <ele>805.7</ele>
        <time>2016-07-23T10:15:50Z</time>
      </trkpt>
      <trkpt lat="42.52413" lon="0.21954">
        <ele>805.9</ele>
        <time>2016-07-23T10:15:54Z</time>
      </trkpt>
      <trkpt lat="42.5241" lon="0.21956">
        <ele>806.4</ele>
        <time>2016-07-23T10:15:59Z</time>
      </trkpt>
      <trkpt lat="42.52408" lon="0.21957">
        <ele>806.9</ele>
        <time>2016-07-23T10:16:05Z</time>
      </trkpt>
      <trkpt lat="42.52408" lon="0.21953">
        <ele>807.6</ele>
        <time>2016-07-23T10:16:14Z</time>
      </trkpt>
      <trkpt lat="42.52411" lon="0.21951">
        <ele>807</ele>
        <time>2016-07-23T10:16:17Z</time>
      </trkpt>
      <trkpt lat="42.52413" lon="0.21948">
        <ele>806.8</ele>
        <time>2016-07-23T10:16:21Z</time>
      </trkpt>
      <trkpt lat="42.52412" lon="0.21944">
        <ele>807.6</ele>
        <time>2016-07-23T10:16:30Z</time>
      </trkpt>
      <trkpt lat="42.52409" lon="0.2194">
        <ele>809.1</ele>
        <time>2016-07-23T10:16:34Z</time>
      </trkpt>
      <trkpt lat="42.52406" lon="0.21938">
        <ele>810.4</ele>
        <time>2016-07-23T10:16:37Z</time>
      </trkpt>
      <trkpt lat="42.52404" lon="0.21936">
        <ele>811.5</ele>
        <time>2016-07-23T10:16:40Z</time>
      </trkpt>
      <trkpt lat="42.52401" lon="0.21937">
        <ele>812.4</ele>
        <time>2016-07-23T10:16:43Z</time>
      </trkpt>
      <trkpt lat="42.52402" lon="0.21933">
        <ele>812.7</ele>
        <time>2016-07-23T10:16:54Z</time>
      </trkpt>
      <trkpt lat="42.52404" lon="0.21931">
        <ele>812.3</ele>
        <time>2016-07-23T10:16:57Z</time>
      </trkpt>
      <trkpt lat="42.52406" lon="0.21928">
        <ele>812.2</ele>
        <time>2016-07-23T10:17:02Z</time>
      </trkpt>
      <trkpt lat="42.52409" lon="0.21926">
        <ele>811.6</ele>
        <time>2016-07-23T10:17:09Z</time>
      </trkpt>
      <trkpt lat="42.52411" lon="0.21923">
        <ele>811.2</ele>
        <time>2016-07-23T10:17:13Z</time>
      </trkpt>
      <trkpt lat="42.52414" lon="0.2192">
        <ele>810.8</ele>
        <time>2016-07-23T10:17:15Z</time>
      </trkpt>
      <trkpt lat="42.52417" lon="0.21919">
        <ele>810.1</ele>
        <time>2016-07-23T10:17:18Z</time>
      </trkpt>
      <trkpt lat="42.5242" lon="0.21918">
        <ele>809.2</ele>
        <time>2016-07-23T10:17:21Z</time>
      </trkpt>
      <trkpt lat="42.52424" lon="0.21916">
        <ele>808.4</ele>
        <time>2016-07-23T10:17:25Z</time>
      </trkpt>
      <trkpt lat="42.52426" lon="0.21915">
        <ele>807.8</ele>
        <time>2016-07-23T10:17:31Z</time>
      </trkpt>
      <trkpt lat="42.52429" lon="0.21916">
        <ele>806.7</ele>
        <time>2016-07-23T10:17:39Z</time>
      </trkpt>
      <trkpt lat="42.52428" lon="0.2192">
        <ele>806.5</ele>
        <time>2016-07-23T10:17:48Z</time>
      </trkpt>
      <trkpt lat="42.52429" lon="0.21924">
        <ele>805.6</ele>
        <time>2016-07-23T10:17:51Z</time>
      </trkpt>
      <trkpt lat="42.5243" lon="0.21927">
        <ele>804.8</ele>
        <time>2016-07-23T10:17:54Z</time>
      </trkpt>
      <trkpt lat="42.52431" lon="0.21931">
        <ele>803.8</ele>
        <time>2016-07-23T10:18:01Z</time>
      </trkpt>
      <trkpt lat="42.52431" lon="0.21935">
        <ele>803.2</ele>
        <time>2016-07-23T10:18:05Z</time>
      </trkpt>
      <trkpt lat="42.52432" lon="0.21939">
        <ele>802.3</ele>
        <time>2016-07-23T10:18:12Z</time>
      </trkpt>
      <trkpt lat="42.52433" lon="0.21943">
        <ele>801.3</ele>
        <time>2016-07-23T10:18:17Z</time>
      </trkpt>
      <trkpt lat="42.52433" lon="0.21947">
        <ele>800.6</ele>
        <time>2016-07-23T10:18:21Z</time>
      </trkpt>
      <trkpt lat="42.52433" lon="0.21951">
        <ele>800.2</ele>
        <time>2016-07-23T10:18:25Z</time>
      </trkpt>
      <trkpt lat="42.5243" lon="0.21953">
        <ele>800.6</ele>
        <time>2016-07-23T10:18:28Z</time>
      </trkpt>
      <trkpt lat="42.52428" lon="0.21957">
        <ele>800.7</ele>
        <time>2016-07-23T10:18:33Z</time>
      </trkpt>
      <trkpt lat="42.52428" lon="0.21961">
        <ele>801</ele>
        <time>2016-07-23T10:18:39Z</time>
      </trkpt>
      <trkpt lat="42.52427" lon="0.21965">
        <ele>801.9</ele>
        <time>2016-07-23T10:18:43Z</time>
      </trkpt>
      <trkpt lat="42.52428" lon="0.21969">
        <ele>802.2</ele>
        <time>2016-07-23T10:18:48Z</time>
      </trkpt>
      <trkpt lat="42.52429" lon="0.21972">
        <ele>802.3</ele>
        <time>2016-07-23T10:18:53Z</time>
      </trkpt>
      <trkpt lat="42.5243" lon="0.21976">
        <ele>802.5</ele>
        <time>2016-07-23T10:18:57Z</time>
      </trkpt>
      <trkpt lat="42.5243" lon="0.21972">
        <ele>801.9</ele>
        <time>2016-07-23T10:19:41Z</time>
      </trkpt>
      <trkpt lat="42.52431" lon="0.21969">
        <ele>801</ele>
        <time>2016-07-23T10:19:45Z</time>
      </trkpt>
      <trkpt lat="42.52433" lon="0.21965">
        <ele>799.8</ele>
        <time>2016-07-23T10:19:50Z</time>
      </trkpt>
      <trkpt lat="42.52433" lon="0.21962">
        <ele>799.3</ele>
        <time>2016-07-23T10:20:00Z</time>
      </trkpt>
      <trkpt lat="42.52434" lon="0.21957">
        <ele>798.8</ele>
        <time>2016-07-23T10:20:05Z</time>
      </trkpt>
      <trkpt lat="42.52437" lon="0.21957">
        <ele>798</ele>
        <time>2016-07-23T10:20:16Z</time>
      </trkpt>
      <trkpt lat="42.5244" lon="0.21955">
        <ele>797.4</ele>
        <time>2016-07-23T10:20:22Z</time>
      </trkpt>
      <trkpt lat="42.52441" lon="0.21951">
        <ele>797.5</ele>
        <time>2016-07-23T10:20:28Z</time>
      </trkpt>
      <trkpt lat="42.5244" lon="0.21948">
        <ele>798.5</ele>
        <time>2016-07-23T10:20:34Z</time>
      </trkpt>
      <trkpt lat="42.52439" lon="0.21944">
        <ele>799.3</ele>
        <time>2016-07-23T10:20:39Z</time>
      </trkpt>
      <trkpt lat="42.52437" lon="0.21941">
        <ele>800.4</ele>
        <time>2016-07-23T10:20:44Z</time>
      </trkpt>
      <trkpt lat="42.52437" lon="0.21937">
        <ele>801.2</ele>
        <time>2016-07-23T10:20:55Z</time>
      </trkpt>
      <trkpt lat="42.52435" lon="0.21934">
        <ele>802.1</ele>
        <time>2016-07-23T10:20:59Z</time>
      </trkpt>
      <trkpt lat="42.52436" lon="0.2193">
        <ele>802.4</ele>
        <time>2016-07-23T10:21:07Z</time>
      </trkpt>
      <trkpt lat="42.52436" lon="0.21926">
        <ele>803.1</ele>
        <time>2016-07-23T10:21:12Z</time>
      </trkpt>
      <trkpt lat="42.52436" lon="0.21922">
        <ele>803.8</ele>
        <time>2016-07-23T10:21:18Z</time>
      </trkpt>
      <trkpt lat="42.52434" lon="0.21919">
        <ele>804.8</ele>
        <time>2016-07-23T10:21:23Z</time>
      </trkpt>
      <trkpt lat="42.52433" lon="0.21915">
        <ele>805.8</ele>
        <time>2016-07-23T10:21:29Z</time>
      </trkpt>
      <trkpt lat="42.5243" lon="0.21913">
        <ele>806.8</ele>
        <time>2016-07-23T10:21:40Z</time>
      </trkpt>
      <trkpt lat="42.52427" lon="0.21914">
        <ele>807.6</ele>
        <time>2016-07-23T10:23:23Z</time>
      </trkpt>
      <trkpt lat="42.52425" lon="0.21916">
        <ele>808</ele>
        <time>2016-07-23T10:23:27Z</time>
      </trkpt>
      <trkpt lat="42.5242" lon="0.21918">
        <ele>809.3</ele>
        <time>2016-07-23T10:23:47Z</time>
      </trkpt>
      <trkpt lat="42.52417" lon="0.2192">
        <ele>809.9</ele>
        <time>2016-07-23T10:23:51Z</time>
      </trkpt>
      <trkpt lat="42.52415" lon="0.21923">
        <ele>810.1</ele>
        <time>2016-07-23T10:23:58Z</time>
      </trkpt>
      <trkpt lat="42.52412" lon="0.21924">
        <ele>810.8</ele>
        <time>2016-07-23T10:24:02Z</time>
      </trkpt>
      <trkpt lat="42.52409" lon="0.21925">
        <ele>811.5</ele>
        <time>2016-07-23T10:24:10Z</time>
      </trkpt>
      <trkpt lat="42.52407" lon="0.21926">
        <ele>812.2</ele>
        <time>2016-07-23T10:24:16Z</time>
      </trkpt>
      <trkpt lat="42.52405" lon="0.21929">
        <ele>812.3</ele>
        <time>2016-07-23T10:24:22Z</time>
      </trkpt>
      <trkpt lat="42.52402" lon="0.21932">
        <ele>812.6</ele>
        <time>2016-07-23T10:24:26Z</time>
      </trkpt>
      <trkpt lat="42.524" lon="0.21934">
        <ele>812.9</ele>
        <time>2016-07-23T10:24:40Z</time>
      </trkpt>
      <trkpt lat="42.52397" lon="0.21936">
        <ele>813.5</ele>
        <time>2016-07-23T10:24:47Z</time>
      </trkpt>
      <trkpt lat="42.52394" lon="0.21938">
        <ele>814.2</ele>
        <time>2016-07-23T10:24:52Z</time>
      </trkpt>
      <trkpt lat="42.52393" lon="0.21941">
        <ele>814.2</ele>
        <time>2016-07-23T10:25:02Z</time>
      </trkpt>
      <trkpt lat="42.5239" lon="0.2194">
        <ele>815.1</ele>
        <time>2016-07-23T10:25:07Z</time>
      </trkpt>
      <trkpt lat="42.52387" lon="0.2194">
        <ele>816.1</ele>
        <time>2016-07-23T10:25:10Z</time>
      </trkpt>
      <trkpt lat="42.52385" lon="0.2194">
        <ele>816.9</ele>
        <time>2016-07-23T10:25:15Z</time>
      </trkpt>
      <trkpt lat="42.52382" lon="0.2194">
        <ele>817.8</ele>
        <time>2016-07-23T10:25:19Z</time>
      </trkpt>
      <trkpt lat="42.52378" lon="0.21941">
        <ele>818.7</ele>
        <time>2016-07-23T10:25:24Z</time>
      </trkpt>
      <trkpt lat="42.52376" lon="0.21942">
        <ele>819.4</ele>
        <time>2016-07-23T10:25:27Z</time>
      </trkpt>
      <trkpt lat="42.52372" lon="0.21941">
        <ele>820.3</ele>
        <time>2016-07-23T10:25:32Z</time>
      </trkpt>
      <trkpt lat="42.52369" lon="0.21939">
        <ele>821.1</ele>
        <time>2016-07-23T10:25:36Z</time>
      </trkpt>
      <trkpt lat="42.52366" lon="0.21938">
        <ele>821.8</ele>
        <time>2016-07-23T10:25:40Z</time>
      </trkpt>
      <trkpt lat="42.52363" lon="0.21936">
        <ele>822.6</ele>
        <time>2016-07-23T10:25:45Z</time>
      </trkpt>
      <trkpt lat="42.5236" lon="0.21935">
        <ele>823.3</ele>
        <time>2016-07-23T10:25:49Z</time>
      </trkpt>
      <trkpt lat="42.52357" lon="0.21934">
        <ele>823.9</ele>
        <time>2016-07-23T10:25:52Z</time>
      </trkpt>
      <trkpt lat="42.52354" lon="0.21935">
        <ele>824.3</ele>
        <time>2016-07-23T10:25:56Z</time>
      </trkpt>
      <trkpt lat="42.52355" lon="0.21939">
        <ele>823.6</ele>
        <time>2016-07-23T10:26:00Z</time>
      </trkpt>
      <trkpt lat="42.52357" lon="0.21942">
        <ele>822.8</ele>
        <time>2016-07-23T10:26:04Z</time>
      </trkpt>
      <trkpt lat="42.52359" lon="0.21945">
        <ele>822</ele>
        <time>2016-07-23T10:26:08Z</time>
      </trkpt>
      <trkpt lat="42.52361" lon="0.21949">
        <ele>821.1</ele>
        <time>2016-07-23T10:26:12Z</time>
      </trkpt>
      <trkpt lat="42.52364" lon="0.21951">
        <ele>820.2</ele>
        <time>2016-07-23T10:26:15Z</time>
      </trkpt>
      <trkpt lat="42.52367" lon="0.21954">
        <ele>819.2</ele>
        <time>2016-07-23T10:26:19Z</time>
      </trkpt>
      <trkpt lat="42.52369" lon="0.21957">
        <ele>818.5</ele>
        <time>2016-07-23T10:26:22Z</time>
      </trkpt>
      <trkpt lat="42.52371" lon="0.21959">
        <ele>817.9</ele>
        <time>2016-07-23T10:26:26Z</time>
      </trkpt>
      <trkpt lat="42.52374" lon="0.21961">
        <ele>817.8</ele>
        <time>2016-07-23T10:26:30Z</time>
      </trkpt>
      <trkpt lat="42.52377" lon="0.21963">
        <ele>817.6</ele>
        <time>2016-07-23T10:26:35Z</time>
      </trkpt>
      <trkpt lat="42.52379" lon="0.21966">
        <ele>817.5</ele>
        <time>2016-07-23T10:26:40Z</time>
      </trkpt>
      <trkpt lat="42.52381" lon="0.21968">
        <ele>817.5</ele>
        <time>2016-07-23T10:26:44Z</time>
      </trkpt>
      <trkpt lat="42.52382" lon="0.21973">
        <ele>818.2</ele>
        <time>2016-07-23T10:26:50Z</time>
      </trkpt>
      <trkpt lat="42.52381" lon="0.21976">
        <ele>819.2</ele>
        <time>2016-07-23T10:26:54Z</time>
      </trkpt>
      <trkpt lat="42.5238" lon="0.2198">
        <ele>820.3</ele>
        <time>2016-07-23T10:26:58Z</time>
      </trkpt>
      <trkpt lat="42.5238" lon="0.21984">
        <ele>821.6</ele>
        <time>2016-07-23T10:27:02Z</time>
      </trkpt>
      <trkpt lat="42.52382" lon="0.21987">
        <ele>821.3</ele>
        <time>2016-07-23T10:27:07Z</time>
      </trkpt>
      <trkpt lat="42.52381" lon="0.2199">
        <ele>822.5</ele>
        <time>2016-07-23T10:27:13Z</time>
      </trkpt>
      <trkpt lat="42.52379" lon="0.21995">
        <ele>824.2</ele>
        <time>2016-07-23T10:27:16Z</time>
      </trkpt>
      <trkpt lat="42.52378" lon="0.21999">
        <ele>825.5</ele>
        <time>2016-07-23T10:27:18Z</time>
      </trkpt>
      <trkpt lat="42.52377" lon="0.22004">
        <ele>827</ele>
        <time>2016-07-23T10:27:21Z</time>
      </trkpt>
      <trkpt lat="42.52376" lon="0.22008">
        <ele>828.7</ele>
        <time>2016-07-23T10:27:24Z</time>
      </trkpt>
      <trkpt lat="42.52374" lon="0.22011">
        <ele>830</ele>
        <time>2016-07-23T10:27:26Z</time>
      </trkpt>
      <trkpt lat="42.52373" lon="0.22015">
        <ele>831.3</ele>
        <time>2016-07-23T10:27:28Z</time>
      </trkpt>
      <trkpt lat="42.52373" lon="0.2202">
        <ele>832.4</ele>
        <time>2016-07-23T10:27:31Z</time>
      </trkpt>
      <trkpt lat="42.52372" lon="0.22025">
        <ele>834</ele>
        <time>2016-07-23T10:27:34Z</time>
      </trkpt>
      <trkpt lat="42.52371" lon="0.22029">
        <ele>835.1</ele>
        <time>2016-07-23T10:27:36Z</time>
      </trkpt>
      <trkpt lat="42.5237" lon="0.22032">
        <ele>836.5</ele>
        <time>2016-07-23T10:27:38Z</time>
      </trkpt>
      <trkpt lat="42.52368" lon="0.22036">
        <ele>838.1</ele>
        <time>2016-07-23T10:27:41Z</time>
      </trkpt>
      <trkpt lat="42.52366" lon="0.22041">
        <ele>840.1</ele>
        <time>2016-07-23T10:27:44Z</time>
      </trkpt>
      <trkpt lat="42.52365" lon="0.22045">
        <ele>841.5</ele>
        <time>2016-07-23T10:27:46Z</time>
      </trkpt>
      <trkpt lat="42.52363" lon="0.2205">
        <ele>843.1</ele>
        <time>2016-07-23T10:27:49Z</time>
      </trkpt>
      <trkpt lat="42.52361" lon="0.22053">
        <ele>844.6</ele>
        <time>2016-07-23T10:27:51Z</time>
      </trkpt>
      <trkpt lat="42.52358" lon="0.22057">
        <ele>846.4</ele>
        <time>2016-07-23T10:27:54Z</time>
      </trkpt>
      <trkpt lat="42.52357" lon="0.2206">
        <ele>847.7</ele>
        <time>2016-07-23T10:27:56Z</time>
      </trkpt>
      <trkpt lat="42.52355" lon="0.22064">
        <ele>849.1</ele>
        <time>2016-07-23T10:27:58Z</time>
      </trkpt>
      <trkpt lat="42.52354" lon="0.22068">
        <ele>850.7</ele>
        <time>2016-07-23T10:28:00Z</time>
      </trkpt>
      <trkpt lat="42.52352" lon="0.22072">
        <ele>852.6</ele>
        <time>2016-07-23T10:28:03Z</time>
      </trkpt>
      <trkpt lat="42.52349" lon="0.22075">
        <ele>854.4</ele>
        <time>2016-07-23T10:28:06Z</time>
      </trkpt>
      <trkpt lat="42.52347" lon="0.22078">
        <ele>856.1</ele>
        <time>2016-07-23T10:28:08Z</time>
      </trkpt>
      <trkpt lat="42.52345" lon="0.22081">
        <ele>857.7</ele>
        <time>2016-07-23T10:28:10Z</time>
      </trkpt>
      <trkpt lat="42.52344" lon="0.22086">
        <ele>859.7</ele>
        <time>2016-07-23T10:28:13Z</time>
      </trkpt>
      <trkpt lat="42.52344" lon="0.22091">
        <ele>861</ele>
        <time>2016-07-23T10:28:16Z</time>
      </trkpt>
      <trkpt lat="42.52342" lon="0.22096">
        <ele>863.1</ele>
        <time>2016-07-23T10:28:19Z</time>
      </trkpt>
      <trkpt lat="42.52342" lon="0.22101">
        <ele>864.5</ele>
        <time>2016-07-23T10:28:22Z</time>
      </trkpt>
      <trkpt lat="42.52343" lon="0.22105">
        <ele>865.1</ele>
        <time>2016-07-23T10:28:24Z</time>
      </trkpt>
      <trkpt lat="42.52344" lon="0.22109">
        <ele>865.5</ele>
        <time>2016-07-23T10:28:26Z</time>
      </trkpt>
      <trkpt lat="42.52345" lon="0.22113">
        <ele>865.7</ele>
        <time>2016-07-23T10:28:28Z</time>
      </trkpt>
      <trkpt lat="42.52346" lon="0.22117">
        <ele>866.2</ele>
        <time>2016-07-23T10:28:30Z</time>
      </trkpt>
      <trkpt lat="42.52345" lon="0.22121">
        <ele>867.6</ele>
        <time>2016-07-23T10:28:32Z</time>
      </trkpt>
      <trkpt lat="42.52343" lon="0.22125">
        <ele>869.7</ele>
        <time>2016-07-23T10:28:34Z</time>
      </trkpt>
      <trkpt lat="42.52342" lon="0.22129">
        <ele>871.1</ele>
        <time>2016-07-23T10:28:36Z</time>
      </trkpt>
      <trkpt lat="42.52342" lon="0.22133">
        <ele>871.9</ele>
        <time>2016-07-23T10:28:38Z</time>
      </trkpt>
      <trkpt lat="42.52343" lon="0.22137">
        <ele>872.4</ele>
        <time>2016-07-23T10:28:40Z</time>
      </trkpt>
      <trkpt lat="42.52343" lon="0.22142">
        <ele>873</ele>
        <time>2016-07-23T10:28:43Z</time>
      </trkpt>
      <trkpt lat="42.52344" lon="0.22145">
        <ele>873.1</ele>
        <time>2016-07-23T10:28:45Z</time>
      </trkpt>
      <trkpt lat="42.52346" lon="0.22151">
        <ele>872.5</ele>
        <time>2016-07-23T10:28:48Z</time>
      </trkpt>
      <trkpt lat="42.52348" lon="0.22155">
        <ele>871.9</ele>
        <time>2016-07-23T10:28:50Z</time>
      </trkpt>
      <trkpt lat="42.52349" lon="0.22158">
        <ele>871.9</ele>
        <time>2016-07-23T10:28:52Z</time>
      </trkpt>
      <trkpt lat="42.52348" lon="0.22164">
        <ele>873.5</ele>
        <time>2016-07-23T10:28:55Z</time>
      </trkpt>
      <trkpt lat="42.52348" lon="0.22171">
        <ele>875</ele>
        <time>2016-07-23T10:28:57Z</time>
      </trkpt>
      <trkpt lat="42.52348" lon="0.22176">
        <ele>876</ele>
        <time>2016-07-23T10:28:59Z</time>
      </trkpt>
      <trkpt lat="42.52348" lon="0.22182">
        <ele>877.2</ele>
        <time>2016-07-23T10:29:01Z</time>
      </trkpt>
      <trkpt lat="42.52347" lon="0.22188">
        <ele>878.4</ele>
        <time>2016-07-23T10:29:03Z</time>
      </trkpt>
      <trkpt lat="42.52347" lon="0.22195">
        <ele>880.1</ele>
        <time>2016-07-23T10:29:05Z</time>
      </trkpt>
      <trkpt lat="42.52346" lon="0.22201">
        <ele>882</ele>
        <time>2016-07-23T10:29:07Z</time>
      </trkpt>
      <trkpt lat="42.52345" lon="0.22209">
        <ele>884.2</ele>
        <time>2016-07-23T10:29:09Z</time>
      </trkpt>
      <trkpt lat="42.52345" lon="0.22214">
        <ele>884.7</ele>
        <time>2016-07-23T10:29:10Z</time>
      </trkpt>
      <trkpt lat="42.52345" lon="0.22219">
        <ele>884.8</ele>
        <time>2016-07-23T10:29:11Z</time>
      </trkpt>
      <trkpt lat="42.52346" lon="0.22223">
        <ele>884.4</ele>
        <time>2016-07-23T10:29:12Z</time>
      </trkpt>
      <trkpt lat="42.52347" lon="0.22227">
        <ele>884.1</ele>
        <time>2016-07-23T10:29:13Z</time>
      </trkpt>
      <trkpt lat="42.52348" lon="0.2223">
        <ele>883.7</ele>
        <time>2016-07-23T10:29:14Z</time>
      </trkpt>
      <trkpt lat="42.52349" lon="0.22234">
        <ele>883.5</ele>
        <time>2016-07-23T10:29:15Z</time>
      </trkpt>
      <trkpt lat="42.52349" lon="0.22239">
        <ele>883.4</ele>
        <time>2016-07-23T10:29:16Z</time>
      </trkpt>
      <trkpt lat="42.52349" lon="0.22245">
        <ele>883.9</ele>
        <time>2016-07-23T10:29:17Z</time>
      </trkpt>
      <trkpt lat="42.52349" lon="0.22251">
        <ele>884.8</ele>
        <time>2016-07-23T10:29:18Z</time>
      </trkpt>
      <trkpt lat="42.52349" lon="0.22256">
        <ele>885.4</ele>
        <time>2016-07-23T10:29:19Z</time>
      </trkpt>
      <trkpt lat="42.52349" lon="0.22261">
        <ele>885.8</ele>
        <time>2016-07-23T10:29:20Z</time>
      </trkpt>
      <trkpt lat="42.52349" lon="0.22266">
        <ele>886</ele>
        <time>2016-07-23T10:29:21Z</time>
      </trkpt>
      <trkpt lat="42.5235" lon="0.2227">
        <ele>886.1</ele>
        <time>2016-07-23T10:29:22Z</time>
      </trkpt>
      <trkpt lat="42.5235" lon="0.22275">
        <ele>886.3</ele>
        <time>2016-07-23T10:29:23Z</time>
      </trkpt>
      <trkpt lat="42.52351" lon="0.22279">
        <ele>886.1</ele>
        <time>2016-07-23T10:29:24Z</time>
      </trkpt>
      <trkpt lat="42.52352" lon="0.22286">
        <ele>885.9</ele>
        <time>2016-07-23T10:29:26Z</time>
      </trkpt>
      <trkpt lat="42.52353" lon="0.22291">
        <ele>885.5</ele>
        <time>2016-07-23T10:29:28Z</time>
      </trkpt>
      <trkpt lat="42.52353" lon="0.22296">
        <ele>885.1</ele>
        <time>2016-07-23T10:29:30Z</time>
      </trkpt>
      <trkpt lat="42.52354" lon="0.22303">
        <ele>884</ele>
        <time>2016-07-23T10:29:32Z</time>
      </trkpt>
      <trkpt lat="42.52355" lon="0.22308">
        <ele>883.3</ele>
        <time>2016-07-23T10:29:34Z</time>
      </trkpt>
      <trkpt lat="42.52355" lon="0.22313">
        <ele>883.4</ele>
        <time>2016-07-23T10:29:36Z</time>
      </trkpt>
      <trkpt lat="42.52355" lon="0.22317">
        <ele>883.6</ele>
        <time>2016-07-23T10:29:38Z</time>
      </trkpt>
      <trkpt lat="42.52354" lon="0.22321">
        <ele>883.7</ele>
        <time>2016-07-23T10:29:40Z</time>
      </trkpt>
      <trkpt lat="42.52355" lon="0.22327">
        <ele>883.1</ele>
        <time>2016-07-23T10:29:42Z</time>
      </trkpt>
      <trkpt lat="42.52356" lon="0.2233">
        <ele>882.1</ele>
        <time>2016-07-23T10:29:44Z</time>
      </trkpt>
      <trkpt lat="42.52356" lon="0.22334">
        <ele>881.9</ele>
        <time>2016-07-23T10:29:52Z</time>
      </trkpt>
      <trkpt lat="42.52357" lon="0.22338">
        <ele>881.6</ele>
        <time>2016-07-23T10:29:56Z</time>
      </trkpt>
      <trkpt lat="42.52355" lon="0.22342">
        <ele>882.4</ele>
        <time>2016-07-23T10:30:03Z</time>
      </trkpt>
      <trkpt lat="42.52355" lon="0.22346">
        <ele>882.3</ele>
        <time>2016-07-23T10:30:07Z</time>
      </trkpt>
      <trkpt lat="42.52354" lon="0.2235">
        <ele>883.4</ele>
        <time>2016-07-23T10:30:15Z</time>
      </trkpt>
      <trkpt lat="42.52353" lon="0.22354">
        <ele>883.8</ele>
        <time>2016-07-23T10:30:33Z</time>
      </trkpt>
      <trkpt lat="42.52356" lon="0.22355">
        <ele>881.6</ele>
        <time>2016-07-23T10:30:40Z</time>
      </trkpt>
      <trkpt lat="42.52354" lon="0.22359">
        <ele>883</ele>
        <time>2016-07-23T10:30:47Z</time>
      </trkpt>
      <trkpt lat="42.52352" lon="0.22363">
        <ele>884.3</ele>
        <time>2016-07-23T10:30:49Z</time>
      </trkpt>
      <trkpt lat="42.52349" lon="0.22366">
        <ele>885.7</ele>
        <time>2016-07-23T10:30:51Z</time>
      </trkpt>
      <trkpt lat="42.52347" lon="0.2237">
        <ele>887.1</ele>
        <time>2016-07-23T10:30:53Z</time>
      </trkpt>
      <trkpt lat="42.52345" lon="0.22373">
        <ele>888.2</ele>
        <time>2016-07-23T10:30:54Z</time>
      </trkpt>
      <trkpt lat="42.52343" lon="0.22376">
        <ele>889.4</ele>
        <time>2016-07-23T10:30:55Z</time>
      </trkpt>
      <trkpt lat="42.5234" lon="0.22378">
        <ele>890.5</ele>
        <time>2016-07-23T10:30:56Z</time>
      </trkpt>
      <trkpt lat="42.52338" lon="0.22381">
        <ele>891.4</ele>
        <time>2016-07-23T10:30:57Z</time>
      </trkpt>
      <trkpt lat="42.52336" lon="0.22384">
        <ele>892.4</ele>
        <time>2016-07-23T10:30:58Z</time>
      </trkpt>
      <trkpt lat="42.52334" lon="0.22386">
        <ele>893.3</ele>
        <time>2016-07-23T10:30:59Z</time>
      </trkpt>
      <trkpt lat="42.52331" lon="0.22388">
        <ele>894.3</ele>
        <time>2016-07-23T10:31:00Z</time>
      </trkpt>
      <trkpt lat="42.52329" lon="0.22391">
        <ele>895.3</ele>
        <time>2016-07-23T10:31:01Z</time>
      </trkpt>
      <trkpt lat="42.52326" lon="0.22393">
        <ele>896.5</ele>
        <time>2016-07-23T10:31:02Z</time>
      </trkpt>
      <trkpt lat="42.52324" lon="0.22395">
        <ele>897.5</ele>
        <time>2016-07-23T10:31:03Z</time>
      </trkpt>
      <trkpt lat="42.5232" lon="0.22398">
        <ele>899.6</ele>
        <time>2016-07-23T10:31:05Z</time>
      </trkpt>
      <trkpt lat="42.52315" lon="0.22401">
        <ele>901.9</ele>
        <time>2016-07-23T10:31:07Z</time>
      </trkpt>
      <trkpt lat="42.52313" lon="0.22403">
        <ele>902.9</ele>
        <time>2016-07-23T10:31:10Z</time>
      </trkpt>
      <trkpt lat="42.52314" lon="0.22406">
        <ele>901.6</ele>
        <time>2016-07-23T10:31:14Z</time>
      </trkpt>
      <trkpt lat="42.52315" lon="0.2241">
        <ele>900.3</ele>
        <time>2016-07-23T10:31:21Z</time>
      </trkpt>
      <trkpt lat="42.52314" lon="0.22415">
        <ele>900.2</ele>
        <time>2016-07-23T10:31:24Z</time>
      </trkpt>
      <trkpt lat="42.52312" lon="0.22418">
        <ele>900.6</ele>
        <time>2016-07-23T10:31:27Z</time>
      </trkpt>
      <trkpt lat="42.52309" lon="0.2242">
        <ele>901.9</ele>
        <time>2016-07-23T10:31:30Z</time>
      </trkpt>
      <trkpt lat="42.52306" lon="0.22421">
        <ele>903.8</ele>
        <time>2016-07-23T10:31:33Z</time>
      </trkpt>
      <trkpt lat="42.52302" lon="0.22422">
        <ele>905.6</ele>
        <time>2016-07-23T10:31:36Z</time>
      </trkpt>
      <trkpt lat="42.52301" lon="0.22425">
        <ele>905.9</ele>
        <time>2016-07-23T10:31:40Z</time>
      </trkpt>
      <trkpt lat="42.52298" lon="0.22428">
        <ele>906.5</ele>
        <time>2016-07-23T10:31:45Z</time>
      </trkpt>
      <trkpt lat="42.52297" lon="0.22432">
        <ele>906.9</ele>
        <time>2016-07-23T10:31:59Z</time>
      </trkpt>
      <trkpt lat="42.52295" lon="0.22429">
        <ele>908.5</ele>
        <time>2016-07-23T10:32:14Z</time>
      </trkpt>
      <trkpt lat="42.52299" lon="0.22434">
        <ele>905.1</ele>
        <time>2016-07-23T10:32:53Z</time>
      </trkpt>
      <trkpt lat="42.52301" lon="0.22436">
        <ele>903.2</ele>
        <time>2016-07-23T10:32:56Z</time>
      </trkpt>
      <trkpt lat="42.52303" lon="0.22439">
        <ele>901.7</ele>
        <time>2016-07-23T10:33:03Z</time>
      </trkpt>
      <trkpt lat="42.52301" lon="0.22442">
        <ele>902.1</ele>
        <time>2016-07-23T10:33:09Z</time>
      </trkpt>
      <trkpt lat="42.52304" lon="0.22442">
        <ele>900.3</ele>
        <time>2016-07-23T10:33:31Z</time>
      </trkpt>
      <trkpt lat="42.52307" lon="0.22443">
        <ele>898.5</ele>
        <time>2016-07-23T10:33:34Z</time>
      </trkpt>
      <trkpt lat="42.5231" lon="0.22444">
        <ele>896.4</ele>
        <time>2016-07-23T10:33:38Z</time>
      </trkpt>
      <trkpt lat="42.52313" lon="0.22445">
        <ele>894.6</ele>
        <time>2016-07-23T10:33:40Z</time>
      </trkpt>
      <trkpt lat="42.5231" lon="0.22446">
        <ele>895.9</ele>
        <time>2016-07-23T10:33:51Z</time>
      </trkpt>
      <trkpt lat="42.52303" lon="0.22432">
        <ele>902.9</ele>
        <time>2016-07-23T10:35:50Z</time>
      </trkpt>
      <trkpt lat="42.523" lon="0.22433">
        <ele>904.5</ele>
        <time>2016-07-23T10:35:53Z</time>
      </trkpt>
      <trkpt lat="42.52306" lon="0.22428">
        <ele>902.1</ele>
        <time>2016-07-23T10:42:22Z</time>
      </trkpt>
      <trkpt lat="42.52308" lon="0.22425">
        <ele>901.5</ele>
        <time>2016-07-23T10:42:24Z</time>
      </trkpt>
      <trkpt lat="42.52311" lon="0.2242">
        <ele>900.7</ele>
        <time>2016-07-23T10:42:26Z</time>
      </trkpt>
      <trkpt lat="42.52311" lon="0.22416">
        <ele>901.6</ele>
        <time>2016-07-23T10:42:28Z</time>
      </trkpt>
      <trkpt lat="42.52309" lon="0.22413">
        <ele>903.2</ele>
        <time>2016-07-23T10:42:35Z</time>
      </trkpt>
      <trkpt lat="42.52309" lon="0.22408">
        <ele>904.1</ele>
        <time>2016-07-23T10:42:39Z</time>
      </trkpt>
      <trkpt lat="42.52312" lon="0.22401">
        <ele>903.8</ele>
        <time>2016-07-23T10:42:41Z</time>
      </trkpt>
      <trkpt lat="42.52316" lon="0.22398">
        <ele>902.1</ele>
        <time>2016-07-23T10:42:42Z</time>
      </trkpt>
      <trkpt lat="42.52321" lon="0.22395">
        <ele>899.6</ele>
        <time>2016-07-23T10:42:43Z</time>
      </trkpt>
      <trkpt lat="42.52326" lon="0.22393">
        <ele>896.9</ele>
        <time>2016-07-23T10:42:44Z</time>
      </trkpt>
      <trkpt lat="42.52331" lon="0.22391">
        <ele>894.3</ele>
        <time>2016-07-23T10:42:45Z</time>
      </trkpt>
      <trkpt lat="42.52335" lon="0.22389">
        <ele>891.7</ele>
        <time>2016-07-23T10:42:46Z</time>
      </trkpt>
      <trkpt lat="42.52339" lon="0.22386">
        <ele>889.6</ele>
        <time>2016-07-23T10:42:47Z</time>
      </trkpt>
      <trkpt lat="42.52342" lon="0.22384">
        <ele>888.3</ele>
        <time>2016-07-23T10:42:48Z</time>
      </trkpt>
      <trkpt lat="42.52346" lon="0.2238">
        <ele>886.4</ele>
        <time>2016-07-23T10:42:50Z</time>
      </trkpt>
      <trkpt lat="42.5235" lon="0.22375">
        <ele>885.1</ele>
        <time>2016-07-23T10:42:52Z</time>
      </trkpt>
      <trkpt lat="42.52353" lon="0.2237">
        <ele>882.9</ele>
        <time>2016-07-23T10:42:54Z</time>
      </trkpt>
      <trkpt lat="42.52356" lon="0.22368">
        <ele>881.4</ele>
        <time>2016-07-23T10:42:55Z</time>
      </trkpt>
      <trkpt lat="42.52358" lon="0.22365">
        <ele>879.8</ele>
        <time>2016-07-23T10:42:56Z</time>
      </trkpt>
      <trkpt lat="42.5236" lon="0.22362">
        <ele>878.5</ele>
        <time>2016-07-23T10:42:57Z</time>
      </trkpt>
      <trkpt lat="42.52363" lon="0.22356">
        <ele>876.9</ele>
        <time>2016-07-23T10:42:59Z</time>
      </trkpt>
      <trkpt lat="42.52363" lon="0.22352">
        <ele>876.7</ele>
        <time>2016-07-23T10:43:00Z</time>
      </trkpt>
      <trkpt lat="42.52363" lon="0.22348">
        <ele>876.8</ele>
        <time>2016-07-23T10:43:01Z</time>
      </trkpt>
      <trkpt lat="42.52362" lon="0.22342">
        <ele>877.6</ele>
        <time>2016-07-23T10:43:03Z</time>
      </trkpt>
      <trkpt lat="42.52361" lon="0.22338">
        <ele>878.4</ele>
        <time>2016-07-23T10:43:04Z</time>
      </trkpt>
      <trkpt lat="42.5236" lon="0.22334">
        <ele>879.6</ele>
        <time>2016-07-23T10:43:05Z</time>
      </trkpt>
      <trkpt lat="42.52358" lon="0.22329">
        <ele>880.8</ele>
        <time>2016-07-23T10:43:06Z</time>
      </trkpt>
      <trkpt lat="42.52356" lon="0.22322">
        <ele>882</ele>
        <time>2016-07-23T10:43:07Z</time>
      </trkpt>
      <trkpt lat="42.52355" lon="0.22316">
        <ele>882.9</ele>
        <time>2016-07-23T10:43:08Z</time>
      </trkpt>
      <trkpt lat="42.52355" lon="0.22309">
        <ele>883.3</ele>
        <time>2016-07-23T10:43:09Z</time>
      </trkpt>
      <trkpt lat="42.52355" lon="0.22302">
        <ele>883.4</ele>
        <time>2016-07-23T10:43:10Z</time>
      </trkpt>
      <trkpt lat="42.52355" lon="0.22297">
        <ele>883.5</ele>
        <time>2016-07-23T10:43:11Z</time>
      </trkpt>
      <trkpt lat="42.52355" lon="0.22291">
        <ele>883.6</ele>
        <time>2016-07-23T10:43:12Z</time>
      </trkpt>
      <trkpt lat="42.52354" lon="0.22285">
        <ele>883.7</ele>
        <time>2016-07-23T10:43:13Z</time>
      </trkpt>
      <trkpt lat="42.52354" lon="0.22278">
        <ele>883.7</ele>
        <time>2016-07-23T10:43:14Z</time>
      </trkpt>
      <trkpt lat="42.52353" lon="0.22272">
        <ele>883.6</ele>
        <time>2016-07-23T10:43:15Z</time>
      </trkpt>
      <trkpt lat="42.52352" lon="0.22265">
        <ele>883.6</ele>
        <time>2016-07-23T10:43:16Z</time>
      </trkpt>
      <trkpt lat="42.52351" lon="0.22259">
        <ele>883.6</ele>
        <time>2016-07-23T10:43:17Z</time>
      </trkpt>
      <trkpt lat="42.5235" lon="0.22252">
        <ele>883.7</ele>
        <time>2016-07-23T10:43:18Z</time>
      </trkpt>
      <trkpt lat="42.5235" lon="0.22245">
        <ele>883.2</ele>
        <time>2016-07-23T10:43:19Z</time>
      </trkpt>
      <trkpt lat="42.52351" lon="0.22239">
        <ele>882.3</ele>
        <time>2016-07-23T10:43:20Z</time>
      </trkpt>
      <trkpt lat="42.52351" lon="0.22233">
        <ele>881.2</ele>
        <time>2016-07-23T10:43:21Z</time>
      </trkpt>
      <trkpt lat="42.52352" lon="0.22227">
        <ele>880</ele>
        <time>2016-07-23T10:43:22Z</time>
      </trkpt>
      <trkpt lat="42.52352" lon="0.22222">
        <ele>879.7</ele>
        <time>2016-07-23T10:43:23Z</time>
      </trkpt>
      <trkpt lat="42.52351" lon="0.22215">
        <ele>879.5</ele>
        <time>2016-07-23T10:43:24Z</time>
      </trkpt>
      <trkpt lat="42.52351" lon="0.2221">
        <ele>879.3</ele>
        <time>2016-07-23T10:43:25Z</time>
      </trkpt>
      <trkpt lat="42.52351" lon="0.22206">
        <ele>878.4</ele>
        <time>2016-07-23T10:43:26Z</time>
      </trkpt>
      <trkpt lat="42.52352" lon="0.22202">
        <ele>877.5</ele>
        <time>2016-07-23T10:43:27Z</time>
      </trkpt>
      <trkpt lat="42.52352" lon="0.22198">
        <ele>876.7</ele>
        <time>2016-07-23T10:43:28Z</time>
      </trkpt>
      <trkpt lat="42.52352" lon="0.22194">
        <ele>876.3</ele>
        <time>2016-07-23T10:43:29Z</time>
      </trkpt>
      <trkpt lat="42.52351" lon="0.22191">
        <ele>876.1</ele>
        <time>2016-07-23T10:43:30Z</time>
      </trkpt>
      <trkpt lat="42.5235" lon="0.22187">
        <ele>875.9</ele>
        <time>2016-07-23T10:43:31Z</time>
      </trkpt>
      <trkpt lat="42.5235" lon="0.22183">
        <ele>875.8</ele>
        <time>2016-07-23T10:43:32Z</time>
      </trkpt>
      <trkpt lat="42.52349" lon="0.22178">
        <ele>875.7</ele>
        <time>2016-07-23T10:43:33Z</time>
      </trkpt>
      <trkpt lat="42.52348" lon="0.22173">
        <ele>875.5</ele>
        <time>2016-07-23T10:43:34Z</time>
      </trkpt>
      <trkpt lat="42.52346" lon="0.22169">
        <ele>875.6</ele>
        <time>2016-07-23T10:43:35Z</time>
      </trkpt>
      <trkpt lat="42.52345" lon="0.22165">
        <ele>875.9</ele>
        <time>2016-07-23T10:43:36Z</time>
      </trkpt>
      <trkpt lat="42.52344" lon="0.22162">
        <ele>876</ele>
        <time>2016-07-23T10:43:38Z</time>
      </trkpt>
      <trkpt lat="42.52343" lon="0.22158">
        <ele>875.8</ele>
        <time>2016-07-23T10:43:41Z</time>
      </trkpt>
      <trkpt lat="42.52343" lon="0.22153">
        <ele>875.1</ele>
        <time>2016-07-23T10:43:44Z</time>
      </trkpt>
      <trkpt lat="42.52343" lon="0.22148">
        <ele>874.2</ele>
        <time>2016-07-23T10:43:46Z</time>
      </trkpt>
      <trkpt lat="42.52344" lon="0.2214">
        <ele>872</ele>
        <time>2016-07-23T10:43:48Z</time>
      </trkpt>
      <trkpt lat="42.52345" lon="0.22136">
        <ele>870.9</ele>
        <time>2016-07-23T10:43:49Z</time>
      </trkpt>
      <trkpt lat="42.52345" lon="0.22131">
        <ele>869.9</ele>
        <time>2016-07-23T10:43:50Z</time>
      </trkpt>
      <trkpt lat="42.52345" lon="0.22125">
        <ele>868.5</ele>
        <time>2016-07-23T10:43:51Z</time>
      </trkpt>
      <trkpt lat="42.52346" lon="0.22121">
        <ele>866.9</ele>
        <time>2016-07-23T10:43:52Z</time>
      </trkpt>
      <trkpt lat="42.52347" lon="0.22117">
        <ele>865.6</ele>
        <time>2016-07-23T10:43:53Z</time>
      </trkpt>
      <trkpt lat="42.52348" lon="0.22113">
        <ele>864.3</ele>
        <time>2016-07-23T10:43:54Z</time>
      </trkpt>
      <trkpt lat="42.52348" lon="0.22108">
        <ele>863.1</ele>
        <time>2016-07-23T10:43:55Z</time>
      </trkpt>
      <trkpt lat="42.52347" lon="0.22102">
        <ele>861.9</ele>
        <time>2016-07-23T10:43:56Z</time>
      </trkpt>
      <trkpt lat="42.52347" lon="0.22095">
        <ele>860.4</ele>
        <time>2016-07-23T10:43:57Z</time>
      </trkpt>
      <trkpt lat="42.52347" lon="0.22081">
        <ele>857</ele>
        <time>2016-07-23T10:43:59Z</time>
      </trkpt>
      <trkpt lat="42.52348" lon="0.22074">
        <ele>854.7</ele>
        <time>2016-07-23T10:44:00Z</time>
      </trkpt>
      <trkpt lat="42.5235" lon="0.22069">
        <ele>852.5</ele>
        <time>2016-07-23T10:44:01Z</time>
      </trkpt>
      <trkpt lat="42.52352" lon="0.22064">
        <ele>850.4</ele>
        <time>2016-07-23T10:44:02Z</time>
      </trkpt>
      <trkpt lat="42.52355" lon="0.22059">
        <ele>848</ele>
        <time>2016-07-23T10:44:03Z</time>
      </trkpt>
      <trkpt lat="42.52358" lon="0.22055">
        <ele>845.9</ele>
        <time>2016-07-23T10:44:04Z</time>
      </trkpt>
      <trkpt lat="42.52361" lon="0.22051">
        <ele>843.9</ele>
        <time>2016-07-23T10:44:05Z</time>
      </trkpt>
      <trkpt lat="42.52364" lon="0.22046">
        <ele>842.1</ele>
        <time>2016-07-23T10:44:06Z</time>
      </trkpt>
      <trkpt lat="42.52366" lon="0.22041">
        <ele>840.2</ele>
        <time>2016-07-23T10:44:07Z</time>
      </trkpt>
      <trkpt lat="42.52368" lon="0.22035">
        <ele>838.1</ele>
        <time>2016-07-23T10:44:08Z</time>
      </trkpt>
      <trkpt lat="42.52369" lon="0.22029">
        <ele>836</ele>
        <time>2016-07-23T10:44:09Z</time>
      </trkpt>
      <trkpt lat="42.52372" lon="0.22022">
        <ele>833.5</ele>
        <time>2016-07-23T10:44:10Z</time>
      </trkpt>
      <trkpt lat="42.52375" lon="0.22016">
        <ele>830.9</ele>
        <time>2016-07-23T10:44:11Z</time>
      </trkpt>
      <trkpt lat="42.52378" lon="0.2201">
        <ele>828.3</ele>
        <time>2016-07-23T10:44:12Z</time>
      </trkpt>
      <trkpt lat="42.5238" lon="0.22007">
        <ele>826.5</ele>
        <time>2016-07-23T10:44:13Z</time>
      </trkpt>
      <trkpt lat="42.5238" lon="0.22001">
        <ele>825.5</ele>
        <time>2016-07-23T10:44:21Z</time>
      </trkpt>
      <trkpt lat="42.52381" lon="0.21994">
        <ele>823.3</ele>
        <time>2016-07-23T10:44:23Z</time>
      </trkpt>
      <trkpt lat="42.52382" lon="0.21989">
        <ele>821.7</ele>
        <time>2016-07-23T10:44:24Z</time>
      </trkpt>
      <trkpt lat="42.52384" lon="0.21985">
        <ele>820.2</ele>
        <time>2016-07-23T10:44:25Z</time>
      </trkpt>
      <trkpt lat="42.52385" lon="0.21979">
        <ele>818.5</ele>
        <time>2016-07-23T10:44:27Z</time>
      </trkpt>
      <trkpt lat="42.52384" lon="0.21975">
        <ele>817.9</ele>
        <time>2016-07-23T10:44:29Z</time>
      </trkpt>
      <trkpt lat="42.52381" lon="0.21971">
        <ele>818</ele>
        <time>2016-07-23T10:44:32Z</time>
      </trkpt>
      <trkpt lat="42.52376" lon="0.21967">
        <ele>818.8</ele>
        <time>2016-07-23T10:44:34Z</time>
      </trkpt>
      <trkpt lat="42.52374" lon="0.21965">
        <ele>818.9</ele>
        <time>2016-07-23T10:44:35Z</time>
      </trkpt>
      <trkpt lat="42.5237" lon="0.21962">
        <ele>818.9</ele>
        <time>2016-07-23T10:44:37Z</time>
      </trkpt>
      <trkpt lat="42.52367" lon="0.21959">
        <ele>818.6</ele>
        <time>2016-07-23T10:44:39Z</time>
      </trkpt>
      <trkpt lat="42.52364" lon="0.21955">
        <ele>819.6</ele>
        <time>2016-07-23T10:44:41Z</time>
      </trkpt>
      <trkpt lat="42.52361" lon="0.2195">
        <ele>820.8</ele>
        <time>2016-07-23T10:44:43Z</time>
      </trkpt>
      <trkpt lat="42.5236" lon="0.21947">
        <ele>821.6</ele>
        <time>2016-07-23T10:44:44Z</time>
      </trkpt>
      <trkpt lat="42.52358" lon="0.21943">
        <ele>822.5</ele>
        <time>2016-07-23T10:44:45Z</time>
      </trkpt>
      <trkpt lat="42.52357" lon="0.21938">
        <ele>823.3</ele>
        <time>2016-07-23T10:44:47Z</time>
      </trkpt>
      <trkpt lat="42.52354" lon="0.21936">
        <ele>824.1</ele>
        <time>2016-07-23T10:44:52Z</time>
      </trkpt>
      <trkpt lat="42.52357" lon="0.21939">
        <ele>823.2</ele>
        <time>2016-07-23T10:44:56Z</time>
      </trkpt>
      <trkpt lat="42.52362" lon="0.21942">
        <ele>822</ele>
        <time>2016-07-23T10:44:58Z</time>
      </trkpt>
      <trkpt lat="42.52366" lon="0.21944">
        <ele>820.9</ele>
        <time>2016-07-23T10:45:00Z</time>
      </trkpt>
      <trkpt lat="42.52371" lon="0.21946">
        <ele>819.8</ele>
        <time>2016-07-23T10:45:02Z</time>
      </trkpt>
      <trkpt lat="42.52375" lon="0.21946">
        <ele>818.8</ele>
        <time>2016-07-23T10:45:04Z</time>
      </trkpt>
      <trkpt lat="42.52378" lon="0.21946">
        <ele>817.9</ele>
        <time>2016-07-23T10:45:05Z</time>
      </trkpt>
      <trkpt lat="42.52382" lon="0.21946">
        <ele>816.8</ele>
        <time>2016-07-23T10:45:06Z</time>
      </trkpt>
      <trkpt lat="42.52385" lon="0.21945">
        <ele>815.8</ele>
        <time>2016-07-23T10:45:07Z</time>
      </trkpt>
      <trkpt lat="42.5239" lon="0.21944">
        <ele>814.6</ele>
        <time>2016-07-23T10:45:09Z</time>
      </trkpt>
      <trkpt lat="42.52392" lon="0.21945">
        <ele>813.7</ele>
        <time>2016-07-23T10:45:11Z</time>
      </trkpt>
      <trkpt lat="42.52395" lon="0.21942">
        <ele>813.5</ele>
        <time>2016-07-23T10:45:27Z</time>
      </trkpt>
      <trkpt lat="42.52397" lon="0.21938">
        <ele>813.2</ele>
        <time>2016-07-23T10:45:30Z</time>
      </trkpt>
      <trkpt lat="42.52401" lon="0.21935">
        <ele>812.7</ele>
        <time>2016-07-23T10:45:32Z</time>
      </trkpt>
      <trkpt lat="42.52404" lon="0.21929">
        <ele>812.4</ele>
        <time>2016-07-23T10:45:35Z</time>
      </trkpt>
      <trkpt lat="42.52407" lon="0.21926">
        <ele>812</ele>
        <time>2016-07-23T10:45:37Z</time>
      </trkpt>
      <trkpt lat="42.52411" lon="0.21925">
        <ele>811.1</ele>
        <time>2016-07-23T10:45:39Z</time>
      </trkpt>
      <trkpt lat="42.52414" lon="0.21922">
        <ele>810.4</ele>
        <time>2016-07-23T10:45:41Z</time>
      </trkpt>
      <trkpt lat="42.52417" lon="0.21921">
        <ele>809.8</ele>
        <time>2016-07-23T10:45:43Z</time>
      </trkpt>
      <trkpt lat="42.52419" lon="0.2192">
        <ele>809.2</ele>
        <time>2016-07-23T10:45:46Z</time>
      </trkpt>
      <trkpt lat="42.52422" lon="0.21919">
        <ele>808.5</ele>
        <time>2016-07-23T10:45:51Z</time>
      </trkpt>
      <trkpt lat="42.52425" lon="0.2192">
        <ele>807.5</ele>
        <time>2016-07-23T10:45:58Z</time>
      </trkpt>
      <trkpt lat="42.52427" lon="0.21916">
        <ele>807.4</ele>
        <time>2016-07-23T10:46:06Z</time>
      </trkpt>
      <trkpt lat="42.52428" lon="0.21912">
        <ele>807.5</ele>
        <time>2016-07-23T10:46:25Z</time>
      </trkpt>
      <trkpt lat="42.52431" lon="0.2191">
        <ele>807.1</ele>
        <time>2016-07-23T10:46:28Z</time>
      </trkpt>
      <trkpt lat="42.52433" lon="0.21907">
        <ele>806.9</ele>
        <time>2016-07-23T10:46:31Z</time>
      </trkpt>
      <trkpt lat="42.52437" lon="0.21904">
        <ele>806.1</ele>
        <time>2016-07-23T10:46:34Z</time>
      </trkpt>
      <trkpt lat="42.52442" lon="0.21903">
        <ele>804.7</ele>
        <time>2016-07-23T10:46:36Z</time>
      </trkpt>
      <trkpt lat="42.52445" lon="0.21903">
        <ele>803.9</ele>
        <time>2016-07-23T10:46:39Z</time>
      </trkpt>
      <trkpt lat="42.52445" lon="0.21898">
        <ele>804.5</ele>
        <time>2016-07-23T10:46:49Z</time>
      </trkpt>
      <trkpt lat="42.52447" lon="0.21895">
        <ele>804.3</ele>
        <time>2016-07-23T10:46:53Z</time>
      </trkpt>
      <trkpt lat="42.5245" lon="0.21892">
        <ele>804.1</ele>
        <time>2016-07-23T10:46:57Z</time>
      </trkpt>
      <trkpt lat="42.52452" lon="0.21889">
        <ele>803.8</ele>
        <time>2016-07-23T10:47:01Z</time>
      </trkpt>
      <trkpt lat="42.52455" lon="0.21888">
        <ele>803.1</ele>
        <time>2016-07-23T10:47:05Z</time>
      </trkpt>
      <trkpt lat="42.52457" lon="0.2189">
        <ele>802</ele>
        <time>2016-07-23T10:47:11Z</time>
      </trkpt>
      <trkpt lat="42.52456" lon="0.21894">
        <ele>801.7</ele>
        <time>2016-07-23T10:47:49Z</time>
      </trkpt>
      <trkpt lat="42.52456" lon="0.21899">
        <ele>801</ele>
        <time>2016-07-23T10:48:02Z</time>
      </trkpt>
      <trkpt lat="42.52453" lon="0.21891">
        <ele>803.1</ele>
        <time>2016-07-23T10:51:19Z</time>
      </trkpt>
      <trkpt lat="42.52455" lon="0.21888">
        <ele>803.1</ele>
        <time>2016-07-23T10:51:23Z</time>
      </trkpt>
      <trkpt lat="42.52457" lon="0.21884">
        <ele>803.1</ele>
        <time>2016-07-23T10:51:27Z</time>
      </trkpt>
      <trkpt lat="42.5246" lon="0.21884">
        <ele>802.5</ele>
        <time>2016-07-23T10:51:34Z</time>
      </trkpt>
      <trkpt lat="42.52462" lon="0.21882">
        <ele>802.5</ele>
        <time>2016-07-23T10:51:39Z</time>
      </trkpt>
      <trkpt lat="42.52464" lon="0.21879">
        <ele>802.7</ele>
        <time>2016-07-23T10:51:43Z</time>
      </trkpt>
      <trkpt lat="42.52467" lon="0.21878">
        <ele>802.6</ele>
        <time>2016-07-23T10:51:45Z</time>
      </trkpt>
      <trkpt lat="42.5247" lon="0.21877">
        <ele>802.4</ele>
        <time>2016-07-23T10:51:49Z</time>
      </trkpt>
      <trkpt lat="42.5247" lon="0.21873">
        <ele>803</ele>
        <time>2016-07-23T10:52:00Z</time>
      </trkpt>
      <trkpt lat="42.52471" lon="0.21869">
        <ele>803.6</ele>
        <time>2016-07-23T10:52:05Z</time>
      </trkpt>
      <trkpt lat="42.52474" lon="0.21868">
        <ele>803.5</ele>
        <time>2016-07-23T10:52:15Z</time>
      </trkpt>
      <trkpt lat="42.52476" lon="0.21865">
        <ele>803.8</ele>
        <time>2016-07-23T10:52:18Z</time>
      </trkpt>
      <trkpt lat="42.52477" lon="0.21861">
        <ele>804.2</ele>
        <time>2016-07-23T10:52:20Z</time>
      </trkpt>
      <trkpt lat="42.52479" lon="0.21857">
        <ele>804.6</ele>
        <time>2016-07-23T10:52:22Z</time>
      </trkpt>
      <trkpt lat="42.52481" lon="0.21854">
        <ele>804.7</ele>
        <time>2016-07-23T10:52:26Z</time>
      </trkpt>
      <trkpt lat="42.52483" lon="0.2185">
        <ele>805.1</ele>
        <time>2016-07-23T10:52:30Z</time>
      </trkpt>
      <trkpt lat="42.52484" lon="0.21846">
        <ele>805.5</ele>
        <time>2016-07-23T10:52:33Z</time>
      </trkpt>
      <trkpt lat="42.52485" lon="0.21843">
        <ele>805.8</ele>
        <time>2016-07-23T10:52:36Z</time>
      </trkpt>
      <trkpt lat="42.52487" lon="0.2184">
        <ele>805.7</ele>
        <time>2016-07-23T10:52:40Z</time>
      </trkpt>
      <trkpt lat="42.52489" lon="0.21837">
        <ele>805.5</ele>
        <time>2016-07-23T10:52:46Z</time>
      </trkpt>
      <trkpt lat="42.52489" lon="0.21833">
        <ele>806.2</ele>
        <time>2016-07-23T10:52:50Z</time>
      </trkpt>
      <trkpt lat="42.52489" lon="0.21829">
        <ele>806.7</ele>
        <time>2016-07-23T10:52:53Z</time>
      </trkpt>
      <trkpt lat="42.5249" lon="0.21825">
        <ele>806.9</ele>
        <time>2016-07-23T10:52:56Z</time>
      </trkpt>
      <trkpt lat="42.52491" lon="0.21821">
        <ele>807.4</ele>
        <time>2016-07-23T10:53:01Z</time>
      </trkpt>
      <trkpt lat="42.52493" lon="0.21818">
        <ele>807.1</ele>
        <time>2016-07-23T10:53:04Z</time>
      </trkpt>
      <trkpt lat="42.52495" lon="0.21815">
        <ele>806.7</ele>
        <time>2016-07-23T10:53:07Z</time>
      </trkpt>
      <trkpt lat="42.52498" lon="0.21813">
        <ele>806.2</ele>
        <time>2016-07-23T10:53:11Z</time>
      </trkpt>
      <trkpt lat="42.525" lon="0.21808">
        <ele>806</ele>
        <time>2016-07-23T10:53:14Z</time>
      </trkpt>
      <trkpt lat="42.525" lon="0.21804">
        <ele>806.3</ele>
        <time>2016-07-23T10:53:16Z</time>
      </trkpt>
      <trkpt lat="42.52501" lon="0.21798">
        <ele>806.7</ele>
        <time>2016-07-23T10:53:18Z</time>
      </trkpt>
      <trkpt lat="42.52501" lon="0.21793">
        <ele>807.1</ele>
        <time>2016-07-23T10:53:20Z</time>
      </trkpt>
      <trkpt lat="42.52502" lon="0.21789">
        <ele>807.3</ele>
        <time>2016-07-23T10:53:22Z</time>
      </trkpt>
      <trkpt lat="42.52503" lon="0.21784">
        <ele>807.7</ele>
        <time>2016-07-23T10:53:25Z</time>
      </trkpt>
      <trkpt lat="42.52504" lon="0.21781">
        <ele>807.6</ele>
        <time>2016-07-23T10:53:31Z</time>
      </trkpt>
      <trkpt lat="42.52506" lon="0.21777">
        <ele>807.4</ele>
        <time>2016-07-23T10:53:35Z</time>
      </trkpt>
      <trkpt lat="42.52506" lon="0.21773">
        <ele>807.8</ele>
        <time>2016-07-23T10:53:38Z</time>
      </trkpt>
      <trkpt lat="42.52506" lon="0.21768">
        <ele>808.5</ele>
        <time>2016-07-23T10:53:42Z</time>
      </trkpt>
      <trkpt lat="42.52507" lon="0.21764">
        <ele>808.8</ele>
        <time>2016-07-23T10:53:46Z</time>
      </trkpt>
      <trkpt lat="42.52508" lon="0.21759">
        <ele>809.1</ele>
        <time>2016-07-23T10:53:49Z</time>
      </trkpt>
      <trkpt lat="42.52509" lon="0.21756">
        <ele>809</ele>
        <time>2016-07-23T10:53:52Z</time>
      </trkpt>
      <trkpt lat="42.5251" lon="0.21751">
        <ele>809.3</ele>
        <time>2016-07-23T10:53:56Z</time>
      </trkpt>
      <trkpt lat="42.52512" lon="0.21746">
        <ele>809.1</ele>
        <time>2016-07-23T10:54:05Z</time>
      </trkpt>
      <trkpt lat="42.52513" lon="0.21742">
        <ele>809.2</ele>
        <time>2016-07-23T10:54:07Z</time>
      </trkpt>
      <trkpt lat="42.52513" lon="0.21737">
        <ele>809.7</ele>
        <time>2016-07-23T10:54:09Z</time>
      </trkpt>
      <trkpt lat="42.52513" lon="0.21733">
        <ele>810.2</ele>
        <time>2016-07-23T10:54:11Z</time>
      </trkpt>
      <trkpt lat="42.52514" lon="0.21728">
        <ele>810.6</ele>
        <time>2016-07-23T10:54:13Z</time>
      </trkpt>
      <trkpt lat="42.52515" lon="0.21723">
        <ele>810.5</ele>
        <time>2016-07-23T10:54:15Z</time>
      </trkpt>
      <trkpt lat="42.52518" lon="0.21719">
        <ele>809.8</ele>
        <time>2016-07-23T10:54:17Z</time>
      </trkpt>
      <trkpt lat="42.52521" lon="0.21714">
        <ele>808.7</ele>
        <time>2016-07-23T10:54:19Z</time>
      </trkpt>
      <trkpt lat="42.52523" lon="0.21711">
        <ele>808.1</ele>
        <time>2016-07-23T10:54:20Z</time>
      </trkpt>
      <trkpt lat="42.52525" lon="0.21708">
        <ele>807.6</ele>
        <time>2016-07-23T10:54:21Z</time>
      </trkpt>
      <trkpt lat="42.52527" lon="0.21705">
        <ele>807.2</ele>
        <time>2016-07-23T10:54:22Z</time>
      </trkpt>
      <trkpt lat="42.52529" lon="0.21702">
        <ele>806.7</ele>
        <time>2016-07-23T10:54:23Z</time>
      </trkpt>
      <trkpt lat="42.52532" lon="0.21697">
        <ele>805.7</ele>
        <time>2016-07-23T10:54:25Z</time>
      </trkpt>
      <trkpt lat="42.52534" lon="0.21694">
        <ele>805.2</ele>
        <time>2016-07-23T10:54:26Z</time>
      </trkpt>
      <trkpt lat="42.52538" lon="0.21689">
        <ele>804.3</ele>
        <time>2016-07-23T10:54:28Z</time>
      </trkpt>
      <trkpt lat="42.52541" lon="0.21684">
        <ele>803.6</ele>
        <time>2016-07-23T10:54:30Z</time>
      </trkpt>
      <trkpt lat="42.52543" lon="0.21681">
        <ele>804</ele>
        <time>2016-07-23T10:54:31Z</time>
      </trkpt>
      <trkpt lat="42.52545" lon="0.21677">
        <ele>804.7</ele>
        <time>2016-07-23T10:54:32Z</time>
      </trkpt>
      <trkpt lat="42.52547" lon="0.21675">
        <ele>805.2</ele>
        <time>2016-07-23T10:54:33Z</time>
      </trkpt>
      <trkpt lat="42.52549" lon="0.21672">
        <ele>805.7</ele>
        <time>2016-07-23T10:54:34Z</time>
      </trkpt>
      <trkpt lat="42.52551" lon="0.21669">
        <ele>806</ele>
        <time>2016-07-23T10:54:35Z</time>
      </trkpt>
      <trkpt lat="42.52555" lon="0.21666">
        <ele>806.4</ele>
        <time>2016-07-23T10:54:37Z</time>
      </trkpt>
      <trkpt lat="42.52557" lon="0.21662">
        <ele>806.6</ele>
        <time>2016-07-23T10:54:39Z</time>
      </trkpt>
      <trkpt lat="42.5256" lon="0.21659">
        <ele>806.7</ele>
        <time>2016-07-23T10:54:41Z</time>
      </trkpt>
      <trkpt lat="42.52563" lon="0.21654">
        <ele>806.9</ele>
        <time>2016-07-23T10:54:44Z</time>
      </trkpt>
      <trkpt lat="42.52564" lon="0.21649">
        <ele>807</ele>
        <time>2016-07-23T10:54:46Z</time>
      </trkpt>
      <trkpt lat="42.52567" lon="0.21644">
        <ele>806.9</ele>
        <time>2016-07-23T10:54:48Z</time>
      </trkpt>
      <trkpt lat="42.52569" lon="0.21641">
        <ele>806.6</ele>
        <time>2016-07-23T10:54:49Z</time>
      </trkpt>
      <trkpt lat="42.52572" lon="0.21638">
        <ele>806.2</ele>
        <time>2016-07-23T10:54:50Z</time>
      </trkpt>
      <trkpt lat="42.52574" lon="0.21635">
        <ele>805.6</ele>
        <time>2016-07-23T10:54:51Z</time>
      </trkpt>
      <trkpt lat="42.52577" lon="0.21633">
        <ele>805.1</ele>
        <time>2016-07-23T10:54:52Z</time>
      </trkpt>
      <trkpt lat="42.52579" lon="0.2163">
        <ele>804.4</ele>
        <time>2016-07-23T10:54:53Z</time>
      </trkpt>
      <trkpt lat="42.52582" lon="0.21627">
        <ele>803.6</ele>
        <time>2016-07-23T10:54:54Z</time>
      </trkpt>
      <trkpt lat="42.52584" lon="0.21625">
        <ele>802.8</ele>
        <time>2016-07-23T10:54:55Z</time>
      </trkpt>
      <trkpt lat="42.52587" lon="0.21624">
        <ele>802.4</ele>
        <time>2016-07-23T10:54:56Z</time>
      </trkpt>
      <trkpt lat="42.5259" lon="0.21622">
        <ele>802.1</ele>
        <time>2016-07-23T10:54:57Z</time>
      </trkpt>
      <trkpt lat="42.52592" lon="0.2162">
        <ele>801.8</ele>
        <time>2016-07-23T10:54:58Z</time>
      </trkpt>
      <trkpt lat="42.52595" lon="0.21618">
        <ele>801.5</ele>
        <time>2016-07-23T10:54:59Z</time>
      </trkpt>
      <trkpt lat="42.52599" lon="0.21615">
        <ele>800.8</ele>
        <time>2016-07-23T10:55:01Z</time>
      </trkpt>
      <trkpt lat="42.52603" lon="0.21613">
        <ele>799.9</ele>
        <time>2016-07-23T10:55:03Z</time>
      </trkpt>
      <trkpt lat="42.52607" lon="0.21611">
        <ele>799</ele>
        <time>2016-07-23T10:55:05Z</time>
      </trkpt>
      <trkpt lat="42.5261" lon="0.21608">
        <ele>798.5</ele>
        <time>2016-07-23T10:55:07Z</time>
      </trkpt>
      <trkpt lat="42.52613" lon="0.21607">
        <ele>797.9</ele>
        <time>2016-07-23T10:55:09Z</time>
      </trkpt>
      <trkpt lat="42.52616" lon="0.21606">
        <ele>797</ele>
        <time>2016-07-23T10:55:11Z</time>
      </trkpt>
      <trkpt lat="42.5262" lon="0.21605">
        <ele>795.6</ele>
        <time>2016-07-23T10:55:14Z</time>
      </trkpt>
      <trkpt lat="42.52624" lon="0.21603">
        <ele>794.3</ele>
        <time>2016-07-23T10:55:16Z</time>
      </trkpt>
      <trkpt lat="42.52629" lon="0.21601">
        <ele>794.5</ele>
        <time>2016-07-23T10:55:18Z</time>
      </trkpt>
      <trkpt lat="42.52633" lon="0.216">
        <ele>795</ele>
        <time>2016-07-23T10:55:20Z</time>
      </trkpt>
      <trkpt lat="42.52637" lon="0.21598">
        <ele>795.6</ele>
        <time>2016-07-23T10:55:22Z</time>
      </trkpt>
      <trkpt lat="42.52642" lon="0.21597">
        <ele>796</ele>
        <time>2016-07-23T10:55:24Z</time>
      </trkpt>
      <trkpt lat="42.52646" lon="0.21596">
        <ele>796.4</ele>
        <time>2016-07-23T10:55:26Z</time>
      </trkpt>
      <trkpt lat="42.52649" lon="0.21594">
        <ele>796.6</ele>
        <time>2016-07-23T10:55:28Z</time>
      </trkpt>
      <trkpt lat="42.52652" lon="0.21592">
        <ele>796.8</ele>
        <time>2016-07-23T10:55:31Z</time>
      </trkpt>
      <trkpt lat="42.52654" lon="0.21587">
        <ele>796.9</ele>
        <time>2016-07-23T10:55:33Z</time>
      </trkpt>
      <trkpt lat="42.52656" lon="0.21582">
        <ele>796.9</ele>
        <time>2016-07-23T10:55:35Z</time>
      </trkpt>
      <trkpt lat="42.52658" lon="0.21579">
        <ele>796.9</ele>
        <time>2016-07-23T10:55:37Z</time>
      </trkpt>
      <trkpt lat="42.5266" lon="0.21574">
        <ele>796.7</ele>
        <time>2016-07-23T10:55:39Z</time>
      </trkpt>
      <trkpt lat="42.52661" lon="0.21569">
        <ele>796.5</ele>
        <time>2016-07-23T10:55:41Z</time>
      </trkpt>
      <trkpt lat="42.52662" lon="0.21564">
        <ele>796.3</ele>
        <time>2016-07-23T10:55:43Z</time>
      </trkpt>
      <trkpt lat="42.52664" lon="0.2156">
        <ele>795.9</ele>
        <time>2016-07-23T10:55:45Z</time>
      </trkpt>
      <trkpt lat="42.52665" lon="0.21555">
        <ele>795.4</ele>
        <time>2016-07-23T10:55:47Z</time>
      </trkpt>
      <trkpt lat="42.52667" lon="0.21551">
        <ele>794.9</ele>
        <time>2016-07-23T10:55:48Z</time>
      </trkpt>
      <trkpt lat="42.5267" lon="0.21546">
        <ele>794</ele>
        <time>2016-07-23T10:55:49Z</time>
      </trkpt>
      <trkpt lat="42.52672" lon="0.21543">
        <ele>793.3</ele>
        <time>2016-07-23T10:55:50Z</time>
      </trkpt>
      <trkpt lat="42.52674" lon="0.2154">
        <ele>793</ele>
        <time>2016-07-23T10:55:51Z</time>
      </trkpt>
      <trkpt lat="42.52676" lon="0.21537">
        <ele>793.1</ele>
        <time>2016-07-23T10:55:52Z</time>
      </trkpt>
      <trkpt lat="42.5268" lon="0.21533">
        <ele>792.7</ele>
        <time>2016-07-23T10:55:54Z</time>
      </trkpt>
      <trkpt lat="42.52684" lon="0.21532">
        <ele>791.9</ele>
        <time>2016-07-23T10:55:55Z</time>
      </trkpt>
      <trkpt lat="42.52687" lon="0.21531">
        <ele>790.9</ele>
        <time>2016-07-23T10:55:56Z</time>
      </trkpt>
      <trkpt lat="42.5269" lon="0.21531">
        <ele>789.9</ele>
        <time>2016-07-23T10:55:57Z</time>
      </trkpt>
      <trkpt lat="42.52693" lon="0.21529">
        <ele>789.3</ele>
        <time>2016-07-23T10:55:58Z</time>
      </trkpt>
      <trkpt lat="42.52696" lon="0.21526">
        <ele>788.7</ele>
        <time>2016-07-23T10:56:00Z</time>
      </trkpt>
      <trkpt lat="42.52698" lon="0.21524">
        <ele>788.2</ele>
        <time>2016-07-23T10:56:06Z</time>
      </trkpt>
      <trkpt lat="42.52697" lon="0.21519">
        <ele>789</ele>
        <time>2016-07-23T10:56:11Z</time>
      </trkpt>
      <trkpt lat="42.52696" lon="0.21515">
        <ele>789.7</ele>
        <time>2016-07-23T10:56:15Z</time>
      </trkpt>
      <trkpt lat="42.52697" lon="0.2151">
        <ele>789.8</ele>
        <time>2016-07-23T10:56:20Z</time>
      </trkpt>
      <trkpt lat="42.52698" lon="0.21506">
        <ele>789.8</ele>
        <time>2016-07-23T10:56:22Z</time>
      </trkpt>
      <trkpt lat="42.52698" lon="0.21502">
        <ele>790</ele>
        <time>2016-07-23T10:56:24Z</time>
      </trkpt>
      <trkpt lat="42.52697" lon="0.21497">
        <ele>790.8</ele>
        <time>2016-07-23T10:56:26Z</time>
      </trkpt>
      <trkpt lat="42.52697" lon="0.21492">
        <ele>791.1</ele>
        <time>2016-07-23T10:56:29Z</time>
      </trkpt>
      <trkpt lat="42.52699" lon="0.21486">
        <ele>790.7</ele>
        <time>2016-07-23T10:56:31Z</time>
      </trkpt>
      <trkpt lat="42.52701" lon="0.21482">
        <ele>790</ele>
        <time>2016-07-23T10:56:33Z</time>
      </trkpt>
      <trkpt lat="42.52702" lon="0.21479">
        <ele>789.2</ele>
        <time>2016-07-23T10:56:34Z</time>
      </trkpt>
      <trkpt lat="42.52704" lon="0.21474">
        <ele>788.5</ele>
        <time>2016-07-23T10:56:35Z</time>
      </trkpt>
      <trkpt lat="42.52705" lon="0.21468">
        <ele>788</ele>
        <time>2016-07-23T10:56:36Z</time>
      </trkpt>
      <trkpt lat="42.52706" lon="0.21463">
        <ele>787.6</ele>
        <time>2016-07-23T10:56:37Z</time>
      </trkpt>
      <trkpt lat="42.52707" lon="0.21458">
        <ele>787.2</ele>
        <time>2016-07-23T10:56:38Z</time>
      </trkpt>
      <trkpt lat="42.52708" lon="0.21453">
        <ele>787.5</ele>
        <time>2016-07-23T10:56:39Z</time>
      </trkpt>
      <trkpt lat="42.52709" lon="0.21448">
        <ele>787.8</ele>
        <time>2016-07-23T10:56:40Z</time>
      </trkpt>
      <trkpt lat="42.5271" lon="0.21443">
        <ele>789</ele>
        <time>2016-07-23T10:56:41Z</time>
      </trkpt>
      <trkpt lat="42.52712" lon="0.21438">
        <ele>790</ele>
        <time>2016-07-23T10:56:42Z</time>
      </trkpt>
      <trkpt lat="42.52713" lon="0.21434">
        <ele>791</ele>
        <time>2016-07-23T10:56:43Z</time>
      </trkpt>
      <trkpt lat="42.52715" lon="0.21429">
        <ele>791.8</ele>
        <time>2016-07-23T10:56:44Z</time>
      </trkpt>
      <trkpt lat="42.52717" lon="0.21426">
        <ele>792.5</ele>
        <time>2016-07-23T10:56:45Z</time>
      </trkpt>
      <trkpt lat="42.5272" lon="0.21422">
        <ele>793.1</ele>
        <time>2016-07-23T10:56:46Z</time>
      </trkpt>
      <trkpt lat="42.52722" lon="0.21419">
        <ele>793.7</ele>
        <time>2016-07-23T10:56:47Z</time>
      </trkpt>
      <trkpt lat="42.52724" lon="0.21415">
        <ele>794.2</ele>
        <time>2016-07-23T10:56:48Z</time>
      </trkpt>
      <trkpt lat="42.52725" lon="0.21411">
        <ele>794.5</ele>
        <time>2016-07-23T10:56:49Z</time>
      </trkpt>
      <trkpt lat="42.52727" lon="0.21408">
        <ele>794.8</ele>
        <time>2016-07-23T10:56:50Z</time>
      </trkpt>
      <trkpt lat="42.52729" lon="0.21402">
        <ele>795.1</ele>
        <time>2016-07-23T10:56:52Z</time>
      </trkpt>
      <trkpt lat="42.52731" lon="0.21395">
        <ele>795.4</ele>
        <time>2016-07-23T10:56:54Z</time>
      </trkpt>
      <trkpt lat="42.52733" lon="0.21392">
        <ele>795.4</ele>
        <time>2016-07-23T10:56:55Z</time>
      </trkpt>
      <trkpt lat="42.52734" lon="0.21388">
        <ele>795.4</ele>
        <time>2016-07-23T10:56:56Z</time>
      </trkpt>
      <trkpt lat="42.52736" lon="0.21383">
        <ele>795.3</ele>
        <time>2016-07-23T10:56:58Z</time>
      </trkpt>
      <trkpt lat="42.52739" lon="0.21376">
        <ele>794.9</ele>
        <time>2016-07-23T10:57:00Z</time>
      </trkpt>
      <trkpt lat="42.52741" lon="0.21373">
        <ele>794.7</ele>
        <time>2016-07-23T10:57:01Z</time>
      </trkpt>
      <trkpt lat="42.52743" lon="0.21369">
        <ele>794.3</ele>
        <time>2016-07-23T10:57:02Z</time>
      </trkpt>
      <trkpt lat="42.52746" lon="0.21365">
        <ele>793.8</ele>
        <time>2016-07-23T10:57:03Z</time>
      </trkpt>
      <trkpt lat="42.52748" lon="0.21362">
        <ele>793.2</ele>
        <time>2016-07-23T10:57:04Z</time>
      </trkpt>
      <trkpt lat="42.52751" lon="0.21359">
        <ele>792.6</ele>
        <time>2016-07-23T10:57:05Z</time>
      </trkpt>
      <trkpt lat="42.52753" lon="0.21356">
        <ele>791.9</ele>
        <time>2016-07-23T10:57:06Z</time>
      </trkpt>
      <trkpt lat="42.52755" lon="0.21354">
        <ele>791.3</ele>
        <time>2016-07-23T10:57:07Z</time>
      </trkpt>
      <trkpt lat="42.52757" lon="0.21351">
        <ele>790.6</ele>
        <time>2016-07-23T10:57:08Z</time>
      </trkpt>
      <trkpt lat="42.52759" lon="0.21348">
        <ele>789.8</ele>
        <time>2016-07-23T10:57:09Z</time>
      </trkpt>
      <trkpt lat="42.52762" lon="0.21344">
        <ele>788.5</ele>
        <time>2016-07-23T10:57:10Z</time>
      </trkpt>
      <trkpt lat="42.52765" lon="0.21339">
        <ele>787.1</ele>
        <time>2016-07-23T10:57:11Z</time>
      </trkpt>
      <trkpt lat="42.52767" lon="0.21335">
        <ele>785.8</ele>
        <time>2016-07-23T10:57:12Z</time>
      </trkpt>
      <trkpt lat="42.52769" lon="0.21332">
        <ele>784.6</ele>
        <time>2016-07-23T10:57:13Z</time>
      </trkpt>
      <trkpt lat="42.52771" lon="0.21329">
        <ele>783.5</ele>
        <time>2016-07-23T10:57:14Z</time>
      </trkpt>
      <trkpt lat="42.52774" lon="0.21323">
        <ele>781.3</ele>
        <time>2016-07-23T10:57:16Z</time>
      </trkpt>
      <trkpt lat="42.52775" lon="0.21319">
        <ele>780</ele>
        <time>2016-07-23T10:57:17Z</time>
      </trkpt>
      <trkpt lat="42.52777" lon="0.21315">
        <ele>778.5</ele>
        <time>2016-07-23T10:57:18Z</time>
      </trkpt>
      <trkpt lat="42.52779" lon="0.21312">
        <ele>777</ele>
        <time>2016-07-23T10:57:19Z</time>
      </trkpt>
      <trkpt lat="42.52781" lon="0.21308">
        <ele>775.3</ele>
        <time>2016-07-23T10:57:20Z</time>
      </trkpt>
      <trkpt lat="42.52783" lon="0.21305">
        <ele>773.4</ele>
        <time>2016-07-23T10:57:21Z</time>
      </trkpt>
      <trkpt lat="42.52785" lon="0.21301">
        <ele>771.3</ele>
        <time>2016-07-23T10:57:22Z</time>
      </trkpt>
      <trkpt lat="42.52787" lon="0.21297">
        <ele>769</ele>
        <time>2016-07-23T10:57:23Z</time>
      </trkpt>
      <trkpt lat="42.5279" lon="0.21294">
        <ele>766.5</ele>
        <time>2016-07-23T10:57:24Z</time>
      </trkpt>
      <trkpt lat="42.52793" lon="0.21291">
        <ele>765.8</ele>
        <time>2016-07-23T10:57:25Z</time>
      </trkpt>
      <trkpt lat="42.52796" lon="0.21288">
        <ele>767</ele>
        <time>2016-07-23T10:57:26Z</time>
      </trkpt>
      <trkpt lat="42.528" lon="0.21283">
        <ele>768.8</ele>
        <time>2016-07-23T10:57:28Z</time>
      </trkpt>
      <trkpt lat="42.52802" lon="0.21279">
        <ele>769.7</ele>
        <time>2016-07-23T10:57:30Z</time>
      </trkpt>
      <trkpt lat="42.52804" lon="0.21275">
        <ele>770.5</ele>
        <time>2016-07-23T10:57:32Z</time>
      </trkpt>
      <trkpt lat="42.52806" lon="0.21271">
        <ele>771.2</ele>
        <time>2016-07-23T10:57:34Z</time>
      </trkpt>
      <trkpt lat="42.52808" lon="0.21266">
        <ele>771.7</ele>
        <time>2016-07-23T10:57:36Z</time>
      </trkpt>
      <trkpt lat="42.52811" lon="0.21261">
        <ele>772.5</ele>
        <time>2016-07-23T10:57:38Z</time>
      </trkpt>
      <trkpt lat="42.52814" lon="0.21257">
        <ele>773.6</ele>
        <time>2016-07-23T10:57:40Z</time>
      </trkpt>
      <trkpt lat="42.52817" lon="0.21252">
        <ele>774.3</ele>
        <time>2016-07-23T10:57:42Z</time>
      </trkpt>
      <trkpt lat="42.52819" lon="0.21248">
        <ele>774.5</ele>
        <time>2016-07-23T10:57:44Z</time>
      </trkpt>
      <trkpt lat="42.52822" lon="0.21242">
        <ele>774.7</ele>
        <time>2016-07-23T10:57:46Z</time>
      </trkpt>
      <trkpt lat="42.52824" lon="0.21237">
        <ele>774.8</ele>
        <time>2016-07-23T10:57:48Z</time>
      </trkpt>
      <trkpt lat="42.52827" lon="0.21234">
        <ele>775.1</ele>
        <time>2016-07-23T10:57:50Z</time>
      </trkpt>
      <trkpt lat="42.5283" lon="0.21229">
        <ele>775.4</ele>
        <time>2016-07-23T10:57:52Z</time>
      </trkpt>
      <trkpt lat="42.52833" lon="0.21226">
        <ele>775.7</ele>
        <time>2016-07-23T10:57:54Z</time>
      </trkpt>
      <trkpt lat="42.52835" lon="0.21223">
        <ele>775.9</ele>
        <time>2016-07-23T10:57:55Z</time>
      </trkpt>
      <trkpt lat="42.52837" lon="0.21221">
        <ele>776</ele>
        <time>2016-07-23T10:57:56Z</time>
      </trkpt>
      <trkpt lat="42.5284" lon="0.21218">
        <ele>776.1</ele>
        <time>2016-07-23T10:57:57Z</time>
      </trkpt>
      <trkpt lat="42.52842" lon="0.21216">
        <ele>776</ele>
        <time>2016-07-23T10:57:58Z</time>
      </trkpt>
      <trkpt lat="42.52844" lon="0.21213">
        <ele>776</ele>
        <time>2016-07-23T10:57:59Z</time>
      </trkpt>
      <trkpt lat="42.52848" lon="0.2121">
        <ele>776.1</ele>
        <time>2016-07-23T10:58:01Z</time>
      </trkpt>
      <trkpt lat="42.52851" lon="0.21208">
        <ele>776.3</ele>
        <time>2016-07-23T10:58:02Z</time>
      </trkpt>
      <trkpt lat="42.52854" lon="0.21206">
        <ele>776.5</ele>
        <time>2016-07-23T10:58:03Z</time>
      </trkpt>
      <trkpt lat="42.52856" lon="0.21205">
        <ele>776.8</ele>
        <time>2016-07-23T10:58:04Z</time>
      </trkpt>
      <trkpt lat="42.52859" lon="0.21203">
        <ele>777</ele>
        <time>2016-07-23T10:58:05Z</time>
      </trkpt>
      <trkpt lat="42.52862" lon="0.21202">
        <ele>777.2</ele>
        <time>2016-07-23T10:58:06Z</time>
      </trkpt>
      <trkpt lat="42.52865" lon="0.212">
        <ele>777.3</ele>
        <time>2016-07-23T10:58:07Z</time>
      </trkpt>
      <trkpt lat="42.52868" lon="0.21199">
        <ele>777.5</ele>
        <time>2016-07-23T10:58:08Z</time>
      </trkpt>
      <trkpt lat="42.52871" lon="0.21199">
        <ele>777.8</ele>
        <time>2016-07-23T10:58:09Z</time>
      </trkpt>
      <trkpt lat="42.52876" lon="0.212">
        <ele>778.9</ele>
        <time>2016-07-23T10:58:11Z</time>
      </trkpt>
      <trkpt lat="42.52878" lon="0.21202">
        <ele>780.1</ele>
        <time>2016-07-23T10:58:12Z</time>
      </trkpt>
      <trkpt lat="42.52881" lon="0.21205">
        <ele>781.6</ele>
        <time>2016-07-23T10:58:13Z</time>
      </trkpt>
      <trkpt lat="42.52884" lon="0.21208">
        <ele>783.4</ele>
        <time>2016-07-23T10:58:14Z</time>
      </trkpt>
      <trkpt lat="42.52887" lon="0.21211">
        <ele>785.1</ele>
        <time>2016-07-23T10:58:15Z</time>
      </trkpt>
      <trkpt lat="42.5289" lon="0.21214">
        <ele>786.7</ele>
        <time>2016-07-23T10:58:16Z</time>
      </trkpt>
      <trkpt lat="42.52894" lon="0.21216">
        <ele>788.5</ele>
        <time>2016-07-23T10:58:17Z</time>
      </trkpt>
      <trkpt lat="42.52897" lon="0.21219">
        <ele>790.2</ele>
        <time>2016-07-23T10:58:18Z</time>
      </trkpt>
      <trkpt lat="42.52902" lon="0.2122">
        <ele>791.6</ele>
        <time>2016-07-23T10:58:19Z</time>
      </trkpt>
      <trkpt lat="42.52905" lon="0.2122">
        <ele>792.5</ele>
        <time>2016-07-23T10:58:21Z</time>
      </trkpt>
      <trkpt lat="42.52906" lon="0.21214">
        <ele>790.8</ele>
        <time>2016-07-23T10:58:25Z</time>
      </trkpt>
      <trkpt lat="42.52907" lon="0.2121">
        <ele>789.8</ele>
        <time>2016-07-23T10:58:26Z</time>
      </trkpt>
      <trkpt lat="42.52909" lon="0.21205">
        <ele>788.8</ele>
        <time>2016-07-23T10:58:27Z</time>
      </trkpt>
      <trkpt lat="42.52911" lon="0.212">
        <ele>787.6</ele>
        <time>2016-07-23T10:58:28Z</time>
      </trkpt>
      <trkpt lat="42.52912" lon="0.21195">
        <ele>786.4</ele>
        <time>2016-07-23T10:58:29Z</time>
      </trkpt>
      <trkpt lat="42.52914" lon="0.2119">
        <ele>785.1</ele>
        <time>2016-07-23T10:58:30Z</time>
      </trkpt>
      <trkpt lat="42.52916" lon="0.21185">
        <ele>783.6</ele>
        <time>2016-07-23T10:58:31Z</time>
      </trkpt>
      <trkpt lat="42.52917" lon="0.2118">
        <ele>782.3</ele>
        <time>2016-07-23T10:58:32Z</time>
      </trkpt>
      <trkpt lat="42.52918" lon="0.21176">
        <ele>781.2</ele>
        <time>2016-07-23T10:58:33Z</time>
      </trkpt>
      <trkpt lat="42.52918" lon="0.21172">
        <ele>779.9</ele>
        <time>2016-07-23T10:58:34Z</time>
      </trkpt>
      <trkpt lat="42.52919" lon="0.21167">
        <ele>778.4</ele>
        <time>2016-07-23T10:58:35Z</time>
      </trkpt>
      <trkpt lat="42.52919" lon="0.21163">
        <ele>776.8</ele>
        <time>2016-07-23T10:58:36Z</time>
      </trkpt>
      <trkpt lat="42.5292" lon="0.21159">
        <ele>775.6</ele>
        <time>2016-07-23T10:58:37Z</time>
      </trkpt>
      <trkpt lat="42.52922" lon="0.21152">
        <ele>773.7</ele>
        <time>2016-07-23T10:58:39Z</time>
      </trkpt>
      <trkpt lat="42.52925" lon="0.21147">
        <ele>772.4</ele>
        <time>2016-07-23T10:58:41Z</time>
      </trkpt>
      <trkpt lat="42.52928" lon="0.21144">
        <ele>771.9</ele>
        <time>2016-07-23T10:58:43Z</time>
      </trkpt>
      <trkpt lat="42.52931" lon="0.21142">
        <ele>771.5</ele>
        <time>2016-07-23T10:58:45Z</time>
      </trkpt>
      <trkpt lat="42.52935" lon="0.21137">
        <ele>770.2</ele>
        <time>2016-07-23T10:58:47Z</time>
      </trkpt>
      <trkpt lat="42.52937" lon="0.21134">
        <ele>769.4</ele>
        <time>2016-07-23T10:58:48Z</time>
      </trkpt>
      <trkpt lat="42.52941" lon="0.21131">
        <ele>768.9</ele>
        <time>2016-07-23T10:58:49Z</time>
      </trkpt>
      <trkpt lat="42.52944" lon="0.21129">
        <ele>768.7</ele>
        <time>2016-07-23T10:58:50Z</time>
      </trkpt>
      <trkpt lat="42.52948" lon="0.21128">
        <ele>768.6</ele>
        <time>2016-07-23T10:58:51Z</time>
      </trkpt>
      <trkpt lat="42.52952" lon="0.21126">
        <ele>768.4</ele>
        <time>2016-07-23T10:58:52Z</time>
      </trkpt>
      <trkpt lat="42.52955" lon="0.21124">
        <ele>768.4</ele>
        <time>2016-07-23T10:58:53Z</time>
      </trkpt>
      <trkpt lat="42.52958" lon="0.21122">
        <ele>768.6</ele>
        <time>2016-07-23T10:58:54Z</time>
      </trkpt>
      <trkpt lat="42.52961" lon="0.21121">
        <ele>769.3</ele>
        <time>2016-07-23T10:58:55Z</time>
      </trkpt>
      <trkpt lat="42.52964" lon="0.21119">
        <ele>770.1</ele>
        <time>2016-07-23T10:58:56Z</time>
      </trkpt>
      <trkpt lat="42.52967" lon="0.21117">
        <ele>770.7</ele>
        <time>2016-07-23T10:58:57Z</time>
      </trkpt>
      <trkpt lat="42.5297" lon="0.21116">
        <ele>771.3</ele>
        <time>2016-07-23T10:58:58Z</time>
      </trkpt>
      <trkpt lat="42.52974" lon="0.21114">
        <ele>772.1</ele>
        <time>2016-07-23T10:58:59Z</time>
      </trkpt>
      <trkpt lat="42.52978" lon="0.21112">
        <ele>772.7</ele>
        <time>2016-07-23T10:59:00Z</time>
      </trkpt>
      <trkpt lat="42.52982" lon="0.21108">
        <ele>773</ele>
        <time>2016-07-23T10:59:01Z</time>
      </trkpt>
      <trkpt lat="42.52985" lon="0.21105">
        <ele>773</ele>
        <time>2016-07-23T10:59:02Z</time>
      </trkpt>
      <trkpt lat="42.52988" lon="0.21101">
        <ele>772.8</ele>
        <time>2016-07-23T10:59:03Z</time>
      </trkpt>
      <trkpt lat="42.5299" lon="0.21097">
        <ele>772.3</ele>
        <time>2016-07-23T10:59:04Z</time>
      </trkpt>
      <trkpt lat="42.52993" lon="0.21092">
        <ele>771.7</ele>
        <time>2016-07-23T10:59:05Z</time>
      </trkpt>
      <trkpt lat="42.52997" lon="0.21088">
        <ele>771</ele>
        <time>2016-07-23T10:59:06Z</time>
      </trkpt>
      <trkpt lat="42.53001" lon="0.21084">
        <ele>770.6</ele>
        <time>2016-07-23T10:59:07Z</time>
      </trkpt>
      <trkpt lat="42.53005" lon="0.21081">
        <ele>770.2</ele>
        <time>2016-07-23T10:59:08Z</time>
      </trkpt>
      <trkpt lat="42.5301" lon="0.21077">
        <ele>769.6</ele>
        <time>2016-07-23T10:59:09Z</time>
      </trkpt>
      <trkpt lat="42.53014" lon="0.21073">
        <ele>768.8</ele>
        <time>2016-07-23T10:59:10Z</time>
      </trkpt>
      <trkpt lat="42.53018" lon="0.2107">
        <ele>768.1</ele>
        <time>2016-07-23T10:59:11Z</time>
      </trkpt>
      <trkpt lat="42.53022" lon="0.21068">
        <ele>767.6</ele>
        <time>2016-07-23T10:59:12Z</time>
      </trkpt>
      <trkpt lat="42.53026" lon="0.21066">
        <ele>767.1</ele>
        <time>2016-07-23T10:59:13Z</time>
      </trkpt>
      <trkpt lat="42.53029" lon="0.21065">
        <ele>767</ele>
        <time>2016-07-23T10:59:14Z</time>
      </trkpt>
      <trkpt lat="42.53033" lon="0.21064">
        <ele>767.2</ele>
        <time>2016-07-23T10:59:16Z</time>
      </trkpt>
      <trkpt lat="42.53037" lon="0.21061">
        <ele>765.9</ele>
        <time>2016-07-23T10:59:18Z</time>
      </trkpt>
      <trkpt lat="42.53039" lon="0.21055">
        <ele>763.3</ele>
        <time>2016-07-23T10:59:20Z</time>
      </trkpt>
      <trkpt lat="42.5304" lon="0.21051">
        <ele>761.2</ele>
        <time>2016-07-23T10:59:21Z</time>
      </trkpt>
      <trkpt lat="42.53041" lon="0.21046">
        <ele>759.1</ele>
        <time>2016-07-23T10:59:22Z</time>
      </trkpt>
      <trkpt lat="42.53042" lon="0.21042">
        <ele>757.2</ele>
        <time>2016-07-23T10:59:23Z</time>
      </trkpt>
      <trkpt lat="42.53044" lon="0.21038">
        <ele>757.7</ele>
        <time>2016-07-23T10:59:24Z</time>
      </trkpt>
      <trkpt lat="42.53045" lon="0.21034">
        <ele>758.4</ele>
        <time>2016-07-23T10:59:25Z</time>
      </trkpt>
      <trkpt lat="42.53047" lon="0.21031">
        <ele>759</ele>
        <time>2016-07-23T10:59:26Z</time>
      </trkpt>
      <trkpt lat="42.5305" lon="0.21028">
        <ele>759.7</ele>
        <time>2016-07-23T10:59:27Z</time>
      </trkpt>
      <trkpt lat="42.53053" lon="0.21024">
        <ele>760.7</ele>
        <time>2016-07-23T10:59:28Z</time>
      </trkpt>
      <trkpt lat="42.53056" lon="0.21021">
        <ele>761.6</ele>
        <time>2016-07-23T10:59:29Z</time>
      </trkpt>
      <trkpt lat="42.5306" lon="0.21018">
        <ele>762.5</ele>
        <time>2016-07-23T10:59:30Z</time>
      </trkpt>
      <trkpt lat="42.53064" lon="0.21014">
        <ele>763.6</ele>
        <time>2016-07-23T10:59:31Z</time>
      </trkpt>
      <trkpt lat="42.53068" lon="0.21012">
        <ele>764.5</ele>
        <time>2016-07-23T10:59:32Z</time>
      </trkpt>
      <trkpt lat="42.53072" lon="0.2101">
        <ele>765.3</ele>
        <time>2016-07-23T10:59:33Z</time>
      </trkpt>
      <trkpt lat="42.53075" lon="0.21009">
        <ele>766.1</ele>
        <time>2016-07-23T10:59:34Z</time>
      </trkpt>
      <trkpt lat="42.53078" lon="0.21011">
        <ele>767.3</ele>
        <time>2016-07-23T10:59:38Z</time>
      </trkpt>
      <trkpt lat="42.53081" lon="0.2101">
        <ele>768</ele>
        <time>2016-07-23T10:59:41Z</time>
      </trkpt>
      <trkpt lat="42.53081" lon="0.21006">
        <ele>767.3</ele>
        <time>2016-07-23T10:59:44Z</time>
      </trkpt>
      <trkpt lat="42.53081" lon="0.21003">
        <ele>766.6</ele>
        <time>2016-07-23T10:59:46Z</time>
      </trkpt>
      <trkpt lat="42.53082" lon="0.20999">
        <ele>766.2</ele>
        <time>2016-07-23T10:59:49Z</time>
      </trkpt>
      <trkpt lat="42.53083" lon="0.20995">
        <ele>765.7</ele>
        <time>2016-07-23T10:59:51Z</time>
      </trkpt>
      <trkpt lat="42.53084" lon="0.20991">
        <ele>765.1</ele>
        <time>2016-07-23T10:59:52Z</time>
      </trkpt>
      <trkpt lat="42.53086" lon="0.20986">
        <ele>764.5</ele>
        <time>2016-07-23T10:59:53Z</time>
      </trkpt>
      <trkpt lat="42.53087" lon="0.2098">
        <ele>763.7</ele>
        <time>2016-07-23T10:59:54Z</time>
      </trkpt>
      <trkpt lat="42.53089" lon="0.20976">
        <ele>763</ele>
        <time>2016-07-23T10:59:55Z</time>
      </trkpt>
      <trkpt lat="42.5309" lon="0.20971">
        <ele>762.2</ele>
        <time>2016-07-23T10:59:56Z</time>
      </trkpt>
      <trkpt lat="42.53092" lon="0.20966">
        <ele>761.3</ele>
        <time>2016-07-23T10:59:57Z</time>
      </trkpt>
      <trkpt lat="42.53095" lon="0.20961">
        <ele>760.4</ele>
        <time>2016-07-23T10:59:58Z</time>
      </trkpt>
      <trkpt lat="42.53098" lon="0.20956">
        <ele>760</ele>
        <time>2016-07-23T10:59:59Z</time>
      </trkpt>
      <trkpt lat="42.531" lon="0.20953">
        <ele>760.1</ele>
        <time>2016-07-23T11:00:00Z</time>
      </trkpt>
      <trkpt lat="42.53102" lon="0.2095">
        <ele>760</ele>
        <time>2016-07-23T11:00:01Z</time>
      </trkpt>
      <trkpt lat="42.53106" lon="0.20945">
        <ele>759.8</ele>
        <time>2016-07-23T11:00:03Z</time>
      </trkpt>
      <trkpt lat="42.53109" lon="0.2094">
        <ele>759.3</ele>
        <time>2016-07-23T11:00:05Z</time>
      </trkpt>
      <trkpt lat="42.53111" lon="0.20937">
        <ele>758.9</ele>
        <time>2016-07-23T11:00:06Z</time>
      </trkpt>
      <trkpt lat="42.53113" lon="0.20934">
        <ele>758.4</ele>
        <time>2016-07-23T11:00:07Z</time>
      </trkpt>
      <trkpt lat="42.53117" lon="0.20929">
        <ele>757.4</ele>
        <time>2016-07-23T11:00:09Z</time>
      </trkpt>
      <trkpt lat="42.53119" lon="0.20926">
        <ele>756.7</ele>
        <time>2016-07-23T11:00:10Z</time>
      </trkpt>
      <trkpt lat="42.53121" lon="0.20922">
        <ele>755.7</ele>
        <time>2016-07-23T11:00:11Z</time>
      </trkpt>
      <trkpt lat="42.53123" lon="0.20917">
        <ele>754.4</ele>
        <time>2016-07-23T11:00:12Z</time>
      </trkpt>
      <trkpt lat="42.53125" lon="0.20912">
        <ele>753.2</ele>
        <time>2016-07-23T11:00:13Z</time>
      </trkpt>
      <trkpt lat="42.53127" lon="0.20908">
        <ele>753.2</ele>
        <time>2016-07-23T11:00:14Z</time>
      </trkpt>
      <trkpt lat="42.53129" lon="0.20903">
        <ele>753.1</ele>
        <time>2016-07-23T11:00:15Z</time>
      </trkpt>
      <trkpt lat="42.5313" lon="0.20897">
        <ele>752.7</ele>
        <time>2016-07-23T11:00:16Z</time>
      </trkpt>
      <trkpt lat="42.5313" lon="0.20893">
        <ele>752.1</ele>
        <time>2016-07-23T11:00:17Z</time>
      </trkpt>
      <trkpt lat="42.5313" lon="0.20886">
        <ele>750.7</ele>
        <time>2016-07-23T11:00:19Z</time>
      </trkpt>
      <trkpt lat="42.53131" lon="0.20881">
        <ele>750</ele>
        <time>2016-07-23T11:00:20Z</time>
      </trkpt>
      <trkpt lat="42.53132" lon="0.20875">
        <ele>749.3</ele>
        <time>2016-07-23T11:00:21Z</time>
      </trkpt>
      <trkpt lat="42.53133" lon="0.20868">
        <ele>750.3</ele>
        <time>2016-07-23T11:00:22Z</time>
      </trkpt>
      <trkpt lat="42.53134" lon="0.20862">
        <ele>751.1</ele>
        <time>2016-07-23T11:00:23Z</time>
      </trkpt>
      <trkpt lat="42.53135" lon="0.20858">
        <ele>751.6</ele>
        <time>2016-07-23T11:00:24Z</time>
      </trkpt>
      <trkpt lat="42.53136" lon="0.20854">
        <ele>752.1</ele>
        <time>2016-07-23T11:00:25Z</time>
      </trkpt>
      <trkpt lat="42.53136" lon="0.20849">
        <ele>752.4</ele>
        <time>2016-07-23T11:00:26Z</time>
      </trkpt>
      <trkpt lat="42.53137" lon="0.20845">
        <ele>752.7</ele>
        <time>2016-07-23T11:00:27Z</time>
      </trkpt>
      <trkpt lat="42.53137" lon="0.2084">
        <ele>753.2</ele>
        <time>2016-07-23T11:00:28Z</time>
      </trkpt>
      <trkpt lat="42.53139" lon="0.20835">
        <ele>753.7</ele>
        <time>2016-07-23T11:00:29Z</time>
      </trkpt>
      <trkpt lat="42.5314" lon="0.2083">
        <ele>754.2</ele>
        <time>2016-07-23T11:00:30Z</time>
      </trkpt>
      <trkpt lat="42.53142" lon="0.20826">
        <ele>754.7</ele>
        <time>2016-07-23T11:00:31Z</time>
      </trkpt>
      <trkpt lat="42.53144" lon="0.20823">
        <ele>755.2</ele>
        <time>2016-07-23T11:00:32Z</time>
      </trkpt>
      <trkpt lat="42.53146" lon="0.2082">
        <ele>755.6</ele>
        <time>2016-07-23T11:00:33Z</time>
      </trkpt>
      <trkpt lat="42.53148" lon="0.20818">
        <ele>756.1</ele>
        <time>2016-07-23T11:00:34Z</time>
      </trkpt>
      <trkpt lat="42.53151" lon="0.20816">
        <ele>756.7</ele>
        <time>2016-07-23T11:00:35Z</time>
      </trkpt>
      <trkpt lat="42.53156" lon="0.20816">
        <ele>757.6</ele>
        <time>2016-07-23T11:00:37Z</time>
      </trkpt>
      <trkpt lat="42.5316" lon="0.20817">
        <ele>758.4</ele>
        <time>2016-07-23T11:00:39Z</time>
      </trkpt>
      <trkpt lat="42.53163" lon="0.20816">
        <ele>759</ele>
        <time>2016-07-23T11:00:41Z</time>
      </trkpt>
      <trkpt lat="42.53164" lon="0.20811">
        <ele>758.7</ele>
        <time>2016-07-23T11:00:44Z</time>
      </trkpt>
      <trkpt lat="42.53164" lon="0.20807">
        <ele>758.3</ele>
        <time>2016-07-23T11:00:51Z</time>
      </trkpt>
      <trkpt lat="42.53163" lon="0.20803">
        <ele>757.8</ele>
        <time>2016-07-23T11:01:02Z</time>
      </trkpt>
      <trkpt lat="42.53161" lon="0.208">
        <ele>757.2</ele>
        <time>2016-07-23T11:01:07Z</time>
      </trkpt>
      <trkpt lat="42.5316" lon="0.20797">
        <ele>756.9</ele>
        <time>2016-07-23T11:01:10Z</time>
      </trkpt>
      <trkpt lat="42.53162" lon="0.20795">
        <ele>756.9</ele>
        <time>2016-07-23T11:01:13Z</time>
      </trkpt>
      <trkpt lat="42.53166" lon="0.20798">
        <ele>757.6</ele>
        <time>2016-07-23T11:01:20Z</time>
      </trkpt>
      <trkpt lat="42.53171" lon="0.20798">
        <ele>758</ele>
        <time>2016-07-23T11:01:36Z</time>
      </trkpt>
      <trkpt lat="42.53174" lon="0.20795">
        <ele>758</ele>
        <time>2016-07-23T11:01:40Z</time>
      </trkpt>
      <trkpt lat="42.53175" lon="0.20789">
        <ele>757.5</ele>
        <time>2016-07-23T11:01:44Z</time>
      </trkpt>
      <trkpt lat="42.53177" lon="0.20786">
        <ele>757.3</ele>
        <time>2016-07-23T11:01:46Z</time>
      </trkpt>
      <trkpt lat="42.53179" lon="0.20783">
        <ele>757.2</ele>
        <time>2016-07-23T11:01:48Z</time>
      </trkpt>
      <trkpt lat="42.53182" lon="0.2078">
        <ele>757</ele>
        <time>2016-07-23T11:01:50Z</time>
      </trkpt>
      <trkpt lat="42.53185" lon="0.20777">
        <ele>756.8</ele>
        <time>2016-07-23T11:01:53Z</time>
      </trkpt>
      <trkpt lat="42.53188" lon="0.20774">
        <ele>756.6</ele>
        <time>2016-07-23T11:01:56Z</time>
      </trkpt>
      <trkpt lat="42.53191" lon="0.20771">
        <ele>756.3</ele>
        <time>2016-07-23T11:01:59Z</time>
      </trkpt>
      <trkpt lat="42.53194" lon="0.20767">
        <ele>755.8</ele>
        <time>2016-07-23T11:02:01Z</time>
      </trkpt>
      <trkpt lat="42.53198" lon="0.20765">
        <ele>755.3</ele>
        <time>2016-07-23T11:02:03Z</time>
      </trkpt>
      <trkpt lat="42.53201" lon="0.20764">
        <ele>755.1</ele>
        <time>2016-07-23T11:02:05Z</time>
      </trkpt>
      <trkpt lat="42.53206" lon="0.20761">
        <ele>754.6</ele>
        <time>2016-07-23T11:02:07Z</time>
      </trkpt>
      <trkpt lat="42.5321" lon="0.20757">
        <ele>754</ele>
        <time>2016-07-23T11:02:09Z</time>
      </trkpt>
      <trkpt lat="42.53213" lon="0.20755">
        <ele>753.8</ele>
        <time>2016-07-23T11:02:10Z</time>
      </trkpt>
      <trkpt lat="42.53216" lon="0.20752">
        <ele>753.7</ele>
        <time>2016-07-23T11:02:12Z</time>
      </trkpt>
      <trkpt lat="42.53219" lon="0.20749">
        <ele>753.4</ele>
        <time>2016-07-23T11:02:14Z</time>
      </trkpt>
      <trkpt lat="42.53221" lon="0.20746">
        <ele>753.1</ele>
        <time>2016-07-23T11:02:16Z</time>
      </trkpt>
      <trkpt lat="42.53225" lon="0.20741">
        <ele>752.6</ele>
        <time>2016-07-23T11:02:18Z</time>
      </trkpt>
      <trkpt lat="42.53228" lon="0.20739">
        <ele>752.3</ele>
        <time>2016-07-23T11:02:19Z</time>
      </trkpt>
      <trkpt lat="42.53232" lon="0.20735">
        <ele>752</ele>
        <time>2016-07-23T11:02:20Z</time>
      </trkpt>
      <trkpt lat="42.53236" lon="0.20732">
        <ele>751.7</ele>
        <time>2016-07-23T11:02:21Z</time>
      </trkpt>
      <trkpt lat="42.53241" lon="0.2073">
        <ele>751.6</ele>
        <time>2016-07-23T11:02:22Z</time>
      </trkpt>
      <trkpt lat="42.53246" lon="0.20728">
        <ele>751.5</ele>
        <time>2016-07-23T11:02:23Z</time>
      </trkpt>
      <trkpt lat="42.5325" lon="0.20726">
        <ele>751.4</ele>
        <time>2016-07-23T11:02:24Z</time>
      </trkpt>
      <trkpt lat="42.53252" lon="0.20725">
        <ele>751.3</ele>
        <time>2016-07-23T11:02:25Z</time>
      </trkpt>
      <trkpt lat="42.53255" lon="0.20723">
        <ele>751</ele>
        <time>2016-07-23T11:02:26Z</time>
      </trkpt>
      <trkpt lat="42.53257" lon="0.20721">
        <ele>750.6</ele>
        <time>2016-07-23T11:02:27Z</time>
      </trkpt>
      <trkpt lat="42.53259" lon="0.20716">
        <ele>749.5</ele>
        <time>2016-07-23T11:02:29Z</time>
      </trkpt>
      <trkpt lat="42.53258" lon="0.2071">
        <ele>747.9</ele>
        <time>2016-07-23T11:02:32Z</time>
      </trkpt>
      <trkpt lat="42.53258" lon="0.20705">
        <ele>747.3</ele>
        <time>2016-07-23T11:02:34Z</time>
      </trkpt>
      <trkpt lat="42.53259" lon="0.20697">
        <ele>747.3</ele>
        <time>2016-07-23T11:02:36Z</time>
      </trkpt>
      <trkpt lat="42.5326" lon="0.20694">
        <ele>747.2</ele>
        <time>2016-07-23T11:02:37Z</time>
      </trkpt>
      <trkpt lat="42.53261" lon="0.20689">
        <ele>747.1</ele>
        <time>2016-07-23T11:02:38Z</time>
      </trkpt>
      <trkpt lat="42.53262" lon="0.20683">
        <ele>746.8</ele>
        <time>2016-07-23T11:02:39Z</time>
      </trkpt>
      <trkpt lat="42.53263" lon="0.20677">
        <ele>746.5</ele>
        <time>2016-07-23T11:02:40Z</time>
      </trkpt>
      <trkpt lat="42.53264" lon="0.2067">
        <ele>746.1</ele>
        <time>2016-07-23T11:02:41Z</time>
      </trkpt>
      <trkpt lat="42.53265" lon="0.20665">
        <ele>745.8</ele>
        <time>2016-07-23T11:02:42Z</time>
      </trkpt>
      <trkpt lat="42.53266" lon="0.20661">
        <ele>745.3</ele>
        <time>2016-07-23T11:02:43Z</time>
      </trkpt>
      <trkpt lat="42.53268" lon="0.20656">
        <ele>744.6</ele>
        <time>2016-07-23T11:02:44Z</time>
      </trkpt>
      <trkpt lat="42.53271" lon="0.20652">
        <ele>743.5</ele>
        <time>2016-07-23T11:02:45Z</time>
      </trkpt>
      <trkpt lat="42.53274" lon="0.20647">
        <ele>742.2</ele>
        <time>2016-07-23T11:02:46Z</time>
      </trkpt>
      <trkpt lat="42.53277" lon="0.20641">
        <ele>740.7</ele>
        <time>2016-07-23T11:02:47Z</time>
      </trkpt>
      <trkpt lat="42.53279" lon="0.20634">
        <ele>739.2</ele>
        <time>2016-07-23T11:02:48Z</time>
      </trkpt>
      <trkpt lat="42.5328" lon="0.20628">
        <ele>738.1</ele>
        <time>2016-07-23T11:02:49Z</time>
      </trkpt>
      <trkpt lat="42.5328" lon="0.20622">
        <ele>738.1</ele>
        <time>2016-07-23T11:02:50Z</time>
      </trkpt>
      <trkpt lat="42.53281" lon="0.20616">
        <ele>739</ele>
        <time>2016-07-23T11:02:51Z</time>
      </trkpt>
      <trkpt lat="42.53281" lon="0.20612">
        <ele>739.7</ele>
        <time>2016-07-23T11:02:52Z</time>
      </trkpt>
      <trkpt lat="42.53281" lon="0.20607">
        <ele>740.1</ele>
        <time>2016-07-23T11:02:53Z</time>
      </trkpt>
      <trkpt lat="42.53283" lon="0.20604">
        <ele>739.8</ele>
        <time>2016-07-23T11:02:57Z</time>
      </trkpt>
      <trkpt lat="42.53286" lon="0.20601">
        <ele>739</ele>
        <time>2016-07-23T11:03:04Z</time>
      </trkpt>
      <trkpt lat="42.53288" lon="0.20594">
        <ele>739.3</ele>
        <time>2016-07-23T11:03:06Z</time>
      </trkpt>
      <trkpt lat="42.53288" lon="0.20589">
        <ele>739.5</ele>
        <time>2016-07-23T11:03:07Z</time>
      </trkpt>
      <trkpt lat="42.53289" lon="0.20585">
        <ele>739.7</ele>
        <time>2016-07-23T11:03:08Z</time>
      </trkpt>
      <trkpt lat="42.5329" lon="0.20581">
        <ele>740</ele>
        <time>2016-07-23T11:03:09Z</time>
      </trkpt>
      <trkpt lat="42.5329" lon="0.20577">
        <ele>740.2</ele>
        <time>2016-07-23T11:03:10Z</time>
      </trkpt>
      <trkpt lat="42.53291" lon="0.20573">
        <ele>740.3</ele>
        <time>2016-07-23T11:03:11Z</time>
      </trkpt>
      <trkpt lat="42.53293" lon="0.20566">
        <ele>741.1</ele>
        <time>2016-07-23T11:03:13Z</time>
      </trkpt>
      <trkpt lat="42.53294" lon="0.20562">
        <ele>741.8</ele>
        <time>2016-07-23T11:03:14Z</time>
      </trkpt>
      <trkpt lat="42.53295" lon="0.20558">
        <ele>742.5</ele>
        <time>2016-07-23T11:03:15Z</time>
      </trkpt>
      <trkpt lat="42.53295" lon="0.20553">
        <ele>743.1</ele>
        <time>2016-07-23T11:03:16Z</time>
      </trkpt>
      <trkpt lat="42.53295" lon="0.20549">
        <ele>743.6</ele>
        <time>2016-07-23T11:03:17Z</time>
      </trkpt>
      <trkpt lat="42.53296" lon="0.20546">
        <ele>744.1</ele>
        <time>2016-07-23T11:03:18Z</time>
      </trkpt>
      <trkpt lat="42.53297" lon="0.20539">
        <ele>745.1</ele>
        <time>2016-07-23T11:03:20Z</time>
      </trkpt>
      <trkpt lat="42.53297" lon="0.20534">
        <ele>745.6</ele>
        <time>2016-07-23T11:03:21Z</time>
      </trkpt>
      <trkpt lat="42.53298" lon="0.2053">
        <ele>746.2</ele>
        <time>2016-07-23T11:03:22Z</time>
      </trkpt>
      <trkpt lat="42.53299" lon="0.20524">
        <ele>746.9</ele>
        <time>2016-07-23T11:03:24Z</time>
      </trkpt>
      <trkpt lat="42.533" lon="0.2052">
        <ele>747.4</ele>
        <time>2016-07-23T11:03:25Z</time>
      </trkpt>
      <trkpt lat="42.53301" lon="0.20516">
        <ele>747.8</ele>
        <time>2016-07-23T11:03:26Z</time>
      </trkpt>
      <trkpt lat="42.53303" lon="0.20511">
        <ele>748.2</ele>
        <time>2016-07-23T11:03:27Z</time>
      </trkpt>
      <trkpt lat="42.53306" lon="0.20507">
        <ele>748.6</ele>
        <time>2016-07-23T11:03:28Z</time>
      </trkpt>
      <trkpt lat="42.53308" lon="0.20503">
        <ele>748.8</ele>
        <time>2016-07-23T11:03:29Z</time>
      </trkpt>
      <trkpt lat="42.53311" lon="0.205">
        <ele>748.9</ele>
        <time>2016-07-23T11:03:30Z</time>
      </trkpt>
      <trkpt lat="42.53314" lon="0.20497">
        <ele>748.9</ele>
        <time>2016-07-23T11:03:31Z</time>
      </trkpt>
      <trkpt lat="42.53317" lon="0.20494">
        <ele>748.9</ele>
        <time>2016-07-23T11:03:32Z</time>
      </trkpt>
      <trkpt lat="42.5332" lon="0.2049">
        <ele>748.7</ele>
        <time>2016-07-23T11:03:33Z</time>
      </trkpt>
      <trkpt lat="42.53323" lon="0.20487">
        <ele>748.4</ele>
        <time>2016-07-23T11:03:34Z</time>
      </trkpt>
      <trkpt lat="42.53327" lon="0.20483">
        <ele>748</ele>
        <time>2016-07-23T11:03:35Z</time>
      </trkpt>
      <trkpt lat="42.5333" lon="0.20479">
        <ele>747.5</ele>
        <time>2016-07-23T11:03:36Z</time>
      </trkpt>
      <trkpt lat="42.53333" lon="0.20475">
        <ele>747</ele>
        <time>2016-07-23T11:03:37Z</time>
      </trkpt>
      <trkpt lat="42.53336" lon="0.20472">
        <ele>746.4</ele>
        <time>2016-07-23T11:03:38Z</time>
      </trkpt>
      <trkpt lat="42.53338" lon="0.2047">
        <ele>745.8</ele>
        <time>2016-07-23T11:03:39Z</time>
      </trkpt>
      <trkpt lat="42.53341" lon="0.20467">
        <ele>745</ele>
        <time>2016-07-23T11:03:40Z</time>
      </trkpt>
      <trkpt lat="42.53344" lon="0.20463">
        <ele>744.3</ele>
        <time>2016-07-23T11:03:41Z</time>
      </trkpt>
      <trkpt lat="42.53346" lon="0.2046">
        <ele>743.4</ele>
        <time>2016-07-23T11:03:42Z</time>
      </trkpt>
      <trkpt lat="42.53348" lon="0.20456">
        <ele>743.4</ele>
        <time>2016-07-23T11:03:43Z</time>
      </trkpt>
      <trkpt lat="42.53351" lon="0.20452">
        <ele>743.8</ele>
        <time>2016-07-23T11:03:44Z</time>
      </trkpt>
      <trkpt lat="42.53353" lon="0.20449">
        <ele>744.2</ele>
        <time>2016-07-23T11:03:45Z</time>
      </trkpt>
      <trkpt lat="42.53356" lon="0.20445">
        <ele>744.2</ele>
        <time>2016-07-23T11:03:46Z</time>
      </trkpt>
      <trkpt lat="42.53359" lon="0.20442">
        <ele>744.1</ele>
        <time>2016-07-23T11:03:47Z</time>
      </trkpt>
      <trkpt lat="42.53362" lon="0.20439">
        <ele>743.6</ele>
        <time>2016-07-23T11:03:48Z</time>
      </trkpt>
      <trkpt lat="42.53365" lon="0.20436">
        <ele>743.1</ele>
        <time>2016-07-23T11:03:49Z</time>
      </trkpt>
      <trkpt lat="42.53368" lon="0.20433">
        <ele>742.5</ele>
        <time>2016-07-23T11:03:50Z</time>
      </trkpt>
      <trkpt lat="42.53372" lon="0.20429">
        <ele>741.4</ele>
        <time>2016-07-23T11:03:51Z</time>
      </trkpt>
      <trkpt lat="42.53377" lon="0.20426">
        <ele>740.3</ele>
        <time>2016-07-23T11:03:52Z</time>
      </trkpt>
      <trkpt lat="42.53382" lon="0.20424">
        <ele>740.2</ele>
        <time>2016-07-23T11:03:53Z</time>
      </trkpt>
      <trkpt lat="42.53387" lon="0.20423">
        <ele>739.9</ele>
        <time>2016-07-23T11:03:54Z</time>
      </trkpt>
      <trkpt lat="42.53392" lon="0.20422">
        <ele>739.6</ele>
        <time>2016-07-23T11:03:55Z</time>
      </trkpt>
      <trkpt lat="42.53397" lon="0.20423">
        <ele>739.2</ele>
        <time>2016-07-23T11:03:56Z</time>
      </trkpt>
      <trkpt lat="42.53403" lon="0.20424">
        <ele>738.7</ele>
        <time>2016-07-23T11:03:57Z</time>
      </trkpt>
      <trkpt lat="42.53408" lon="0.20427">
        <ele>738.4</ele>
        <time>2016-07-23T11:03:58Z</time>
      </trkpt>
      <trkpt lat="42.53413" lon="0.20429">
        <ele>738.3</ele>
        <time>2016-07-23T11:03:59Z</time>
      </trkpt>
      <trkpt lat="42.53417" lon="0.20432">
        <ele>738.3</ele>
        <time>2016-07-23T11:04:00Z</time>
      </trkpt>
      <trkpt lat="42.5342" lon="0.20434">
        <ele>738.3</ele>
        <time>2016-07-23T11:04:01Z</time>
      </trkpt>
      <trkpt lat="42.53425" lon="0.20435">
        <ele>738.3</ele>
        <time>2016-07-23T11:04:03Z</time>
      </trkpt>
      <trkpt lat="42.5343" lon="0.20437">
        <ele>738.3</ele>
        <time>2016-07-23T11:04:05Z</time>
      </trkpt>
      <trkpt lat="42.53435" lon="0.20439">
        <ele>738.5</ele>
        <time>2016-07-23T11:04:07Z</time>
      </trkpt>
      <trkpt lat="42.53438" lon="0.20439">
        <ele>738.6</ele>
        <time>2016-07-23T11:04:08Z</time>
      </trkpt>
      <trkpt lat="42.53442" lon="0.2044">
        <ele>738.6</ele>
        <time>2016-07-23T11:04:09Z</time>
      </trkpt>
      <trkpt lat="42.53447" lon="0.2044">
        <ele>738.7</ele>
        <time>2016-07-23T11:04:10Z</time>
      </trkpt>
      <trkpt lat="42.53452" lon="0.20441">
        <ele>738.7</ele>
        <time>2016-07-23T11:04:11Z</time>
      </trkpt>
      <trkpt lat="42.53457" lon="0.20441">
        <ele>738.9</ele>
        <time>2016-07-23T11:04:12Z</time>
      </trkpt>
      <trkpt lat="42.53461" lon="0.20442">
        <ele>739</ele>
        <time>2016-07-23T11:04:13Z</time>
      </trkpt>
      <trkpt lat="42.53465" lon="0.20443">
        <ele>739.1</ele>
        <time>2016-07-23T11:04:14Z</time>
      </trkpt>
      <trkpt lat="42.53468" lon="0.20443">
        <ele>739.3</ele>
        <time>2016-07-23T11:04:15Z</time>
      </trkpt>
      <trkpt lat="42.5347" lon="0.20444">
        <ele>739.3</ele>
        <time>2016-07-23T11:04:16Z</time>
      </trkpt>
      <trkpt lat="42.53473" lon="0.20444">
        <ele>739.2</ele>
        <time>2016-07-23T11:04:17Z</time>
      </trkpt>
      <trkpt lat="42.53476" lon="0.20444">
        <ele>739.2</ele>
        <time>2016-07-23T11:04:18Z</time>
      </trkpt>
      <trkpt lat="42.53481" lon="0.20444">
        <ele>739.3</ele>
        <time>2016-07-23T11:04:20Z</time>
      </trkpt>
      <trkpt lat="42.53486" lon="0.20445">
        <ele>739.4</ele>
        <time>2016-07-23T11:04:22Z</time>
      </trkpt>
      <trkpt lat="42.5349" lon="0.20444">
        <ele>739.2</ele>
        <time>2016-07-23T11:04:24Z</time>
      </trkpt>
      <trkpt lat="42.53493" lon="0.20443">
        <ele>738.8</ele>
        <time>2016-07-23T11:04:26Z</time>
      </trkpt>
      <trkpt lat="42.53495" lon="0.20442">
        <ele>738.5</ele>
        <time>2016-07-23T11:04:28Z</time>
      </trkpt>
      <trkpt lat="42.53499" lon="0.2044">
        <ele>738</ele>
        <time>2016-07-23T11:04:31Z</time>
      </trkpt>
      <trkpt lat="42.53502" lon="0.20439">
        <ele>737.7</ele>
        <time>2016-07-23T11:04:33Z</time>
      </trkpt>
      <trkpt lat="42.53505" lon="0.20437">
        <ele>737.1</ele>
        <time>2016-07-23T11:04:36Z</time>
      </trkpt>
      <trkpt lat="42.53508" lon="0.20436">
        <ele>736.6</ele>
        <time>2016-07-23T11:04:38Z</time>
      </trkpt>
      <trkpt lat="42.53511" lon="0.20433">
        <ele>735.9</ele>
        <time>2016-07-23T11:04:40Z</time>
      </trkpt>
      <trkpt lat="42.53514" lon="0.20432">
        <ele>735.3</ele>
        <time>2016-07-23T11:04:42Z</time>
      </trkpt>
      <trkpt lat="42.53517" lon="0.20431">
        <ele>735.2</ele>
        <time>2016-07-23T11:04:44Z</time>
      </trkpt>
      <trkpt lat="42.5352" lon="0.20432">
        <ele>735.2</ele>
        <time>2016-07-23T11:04:46Z</time>
      </trkpt>
      <trkpt lat="42.53523" lon="0.20433">
        <ele>735.5</ele>
        <time>2016-07-23T11:04:48Z</time>
      </trkpt>
      <trkpt lat="42.53526" lon="0.20434">
        <ele>735.7</ele>
        <time>2016-07-23T11:04:50Z</time>
      </trkpt>
      <trkpt lat="42.53529" lon="0.20433">
        <ele>735.2</ele>
        <time>2016-07-23T11:04:52Z</time>
      </trkpt>
      <trkpt lat="42.53533" lon="0.20431">
        <ele>734.5</ele>
        <time>2016-07-23T11:04:54Z</time>
      </trkpt>
      <trkpt lat="42.53537" lon="0.20428">
        <ele>733.7</ele>
        <time>2016-07-23T11:04:56Z</time>
      </trkpt>
      <trkpt lat="42.53541" lon="0.20426">
        <ele>733</ele>
        <time>2016-07-23T11:04:58Z</time>
      </trkpt>
      <trkpt lat="42.53544" lon="0.20424">
        <ele>732.9</ele>
        <time>2016-07-23T11:05:00Z</time>
      </trkpt>
      <trkpt lat="42.53548" lon="0.20421">
        <ele>733.4</ele>
        <time>2016-07-23T11:05:02Z</time>
      </trkpt>
      <trkpt lat="42.53552" lon="0.2042">
        <ele>734.3</ele>
        <time>2016-07-23T11:05:04Z</time>
      </trkpt>
      <trkpt lat="42.53555" lon="0.20419">
        <ele>735.1</ele>
        <time>2016-07-23T11:05:06Z</time>
      </trkpt>
      <trkpt lat="42.53558" lon="0.20422">
        <ele>736.7</ele>
        <time>2016-07-23T11:05:08Z</time>
      </trkpt>
      <trkpt lat="42.53563" lon="0.20424">
        <ele>739</ele>
        <time>2016-07-23T11:05:10Z</time>
      </trkpt>
      <trkpt lat="42.53567" lon="0.20426">
        <ele>740.6</ele>
        <time>2016-07-23T11:05:12Z</time>
      </trkpt>
      <trkpt lat="42.5357" lon="0.20424">
        <ele>741.1</ele>
        <time>2016-07-23T11:05:14Z</time>
      </trkpt>
      <trkpt lat="42.53572" lon="0.20419">
        <ele>740.3</ele>
        <time>2016-07-23T11:05:16Z</time>
      </trkpt>
      <trkpt lat="42.53573" lon="0.20414">
        <ele>739.2</ele>
        <time>2016-07-23T11:05:18Z</time>
      </trkpt>
      <trkpt lat="42.53573" lon="0.2041">
        <ele>738.3</ele>
        <time>2016-07-23T11:05:20Z</time>
      </trkpt>
      <trkpt lat="42.53574" lon="0.20405">
        <ele>737.1</ele>
        <time>2016-07-23T11:05:22Z</time>
      </trkpt>
      <trkpt lat="42.53575" lon="0.204">
        <ele>736</ele>
        <time>2016-07-23T11:05:24Z</time>
      </trkpt>
      <trkpt lat="42.53576" lon="0.20394">
        <ele>735</ele>
        <time>2016-07-23T11:05:26Z</time>
      </trkpt>
      <trkpt lat="42.53578" lon="0.2039">
        <ele>734.4</ele>
        <time>2016-07-23T11:05:28Z</time>
      </trkpt>
      <trkpt lat="42.5358" lon="0.20386">
        <ele>734.3</ele>
        <time>2016-07-23T11:05:30Z</time>
      </trkpt>
      <trkpt lat="42.53584" lon="0.20384">
        <ele>735</ele>
        <time>2016-07-23T11:05:32Z</time>
      </trkpt>
      <trkpt lat="42.53587" lon="0.20382">
        <ele>735.6</ele>
        <time>2016-07-23T11:05:34Z</time>
      </trkpt>
      <trkpt lat="42.5359" lon="0.20378">
        <ele>735.6</ele>
        <time>2016-07-23T11:05:36Z</time>
      </trkpt>
      <trkpt lat="42.53593" lon="0.20373">
        <ele>735.6</ele>
        <time>2016-07-23T11:05:38Z</time>
      </trkpt>
      <trkpt lat="42.53596" lon="0.20369">
        <ele>735.6</ele>
        <time>2016-07-23T11:05:40Z</time>
      </trkpt>
      <trkpt lat="42.53598" lon="0.20366">
        <ele>735.7</ele>
        <time>2016-07-23T11:05:42Z</time>
      </trkpt>
      <trkpt lat="42.536" lon="0.20363">
        <ele>735.8</ele>
        <time>2016-07-23T11:05:50Z</time>
      </trkpt>
      <trkpt lat="42.53602" lon="0.20361">
        <ele>736.2</ele>
        <time>2016-07-23T11:05:58Z</time>
      </trkpt>
      <trkpt lat="42.53605" lon="0.20358">
        <ele>736.3</ele>
        <time>2016-07-23T11:06:06Z</time>
      </trkpt>
      <trkpt lat="42.53607" lon="0.20356">
        <ele>736.3</ele>
        <time>2016-07-23T11:06:10Z</time>
      </trkpt>
      <trkpt lat="42.53609" lon="0.20352">
        <ele>735.9</ele>
        <time>2016-07-23T11:06:15Z</time>
      </trkpt>
      <trkpt lat="42.5361" lon="0.20349">
        <ele>735.5</ele>
        <time>2016-07-23T11:06:22Z</time>
      </trkpt>
      <trkpt lat="42.53611" lon="0.20345">
        <ele>734.6</ele>
        <time>2016-07-23T11:06:28Z</time>
      </trkpt>
      <trkpt lat="42.53613" lon="0.20341">
        <ele>734</ele>
        <time>2016-07-23T11:06:32Z</time>
      </trkpt>
      <trkpt lat="42.53615" lon="0.20337">
        <ele>733.5</ele>
        <time>2016-07-23T11:06:36Z</time>
      </trkpt>
      <trkpt lat="42.53617" lon="0.20334">
        <ele>733.1</ele>
        <time>2016-07-23T11:06:40Z</time>
      </trkpt>
      <trkpt lat="42.53618" lon="0.20331">
        <ele>732.4</ele>
        <time>2016-07-23T11:06:44Z</time>
      </trkpt>
      <trkpt lat="42.5362" lon="0.20328">
        <ele>731.9</ele>
        <time>2016-07-23T11:06:47Z</time>
      </trkpt>
      <trkpt lat="42.53621" lon="0.20324">
        <ele>731.3</ele>
        <time>2016-07-23T11:06:59Z</time>
      </trkpt>
      <trkpt lat="42.53623" lon="0.20321">
        <ele>730.6</ele>
        <time>2016-07-23T11:07:02Z</time>
      </trkpt>
      <trkpt lat="42.53623" lon="0.20317">
        <ele>729.5</ele>
        <time>2016-07-23T11:07:09Z</time>
      </trkpt>
      <trkpt lat="42.53624" lon="0.20313">
        <ele>728.4</ele>
        <time>2016-07-23T11:07:12Z</time>
      </trkpt>
      <trkpt lat="42.53625" lon="0.20309">
        <ele>727.6</ele>
        <time>2016-07-23T11:07:14Z</time>
      </trkpt>
      <trkpt lat="42.53626" lon="0.20305">
        <ele>726.4</ele>
        <time>2016-07-23T11:07:16Z</time>
      </trkpt>
      <trkpt lat="42.53627" lon="0.203">
        <ele>725.6</ele>
        <time>2016-07-23T11:07:18Z</time>
      </trkpt>
      <trkpt lat="42.53628" lon="0.20297">
        <ele>725</ele>
        <time>2016-07-23T11:07:20Z</time>
      </trkpt>
      <trkpt lat="42.5363" lon="0.20294">
        <ele>725</ele>
        <time>2016-07-23T11:07:22Z</time>
      </trkpt>
      <trkpt lat="42.53632" lon="0.20292">
        <ele>725.4</ele>
        <time>2016-07-23T11:07:25Z</time>
      </trkpt>
      <trkpt lat="42.53635" lon="0.20291">
        <ele>726.6</ele>
        <time>2016-07-23T11:07:32Z</time>
      </trkpt>
      <trkpt lat="42.53638" lon="0.2029">
        <ele>727.7</ele>
        <time>2016-07-23T11:07:36Z</time>
      </trkpt>
      <trkpt lat="42.53641" lon="0.2029">
        <ele>728.9</ele>
        <time>2016-07-23T11:07:40Z</time>
      </trkpt>
      <trkpt lat="42.53644" lon="0.20288">
        <ele>730</ele>
        <time>2016-07-23T11:07:44Z</time>
      </trkpt>
      <trkpt lat="42.53648" lon="0.2029">
        <ele>732.2</ele>
        <time>2016-07-23T11:07:50Z</time>
      </trkpt>
      <trkpt lat="42.5365" lon="0.2029">
        <ele>733.5</ele>
        <time>2016-07-23T11:07:53Z</time>
      </trkpt>
      <trkpt lat="42.53653" lon="0.2029">
        <ele>735</ele>
        <time>2016-07-23T11:07:55Z</time>
      </trkpt>
      <trkpt lat="42.53656" lon="0.20291">
        <ele>736.7</ele>
        <time>2016-07-23T11:07:58Z</time>
      </trkpt>
      <trkpt lat="42.5366" lon="0.20291">
        <ele>738.3</ele>
        <time>2016-07-23T11:08:01Z</time>
      </trkpt>
      <trkpt lat="42.53662" lon="0.20289">
        <ele>739.1</ele>
        <time>2016-07-23T11:08:03Z</time>
      </trkpt>
      <trkpt lat="42.53665" lon="0.20287">
        <ele>739.3</ele>
        <time>2016-07-23T11:08:05Z</time>
      </trkpt>
      <trkpt lat="42.53668" lon="0.20285">
        <ele>740.2</ele>
        <time>2016-07-23T11:08:07Z</time>
      </trkpt>
      <trkpt lat="42.5367" lon="0.20284">
        <ele>741.2</ele>
        <time>2016-07-23T11:08:10Z</time>
      </trkpt>
      <trkpt lat="42.53674" lon="0.20282">
        <ele>741.9</ele>
        <time>2016-07-23T11:08:13Z</time>
      </trkpt>
      <trkpt lat="42.53677" lon="0.20281">
        <ele>743</ele>
        <time>2016-07-23T11:08:16Z</time>
      </trkpt>
      <trkpt lat="42.5368" lon="0.2028">
        <ele>743.8</ele>
        <time>2016-07-23T11:08:18Z</time>
      </trkpt>
      <trkpt lat="42.53683" lon="0.20278">
        <ele>744.6</ele>
        <time>2016-07-23T11:08:21Z</time>
      </trkpt>
      <trkpt lat="42.53686" lon="0.20276">
        <ele>745.3</ele>
        <time>2016-07-23T11:08:24Z</time>
      </trkpt>
      <trkpt lat="42.5369" lon="0.20274">
        <ele>746.2</ele>
        <time>2016-07-23T11:08:32Z</time>
      </trkpt>
      <trkpt lat="42.53693" lon="0.20272">
        <ele>746.8</ele>
        <time>2016-07-23T11:08:38Z</time>
      </trkpt>
      <trkpt lat="42.53696" lon="0.20271">
        <ele>747.8</ele>
        <time>2016-07-23T11:08:42Z</time>
      </trkpt>
      <trkpt lat="42.53699" lon="0.20269">
        <ele>748.2</ele>
        <time>2016-07-23T11:08:45Z</time>
      </trkpt>
      <trkpt lat="42.53702" lon="0.20268">
        <ele>748.7</ele>
        <time>2016-07-23T11:08:48Z</time>
      </trkpt>
      <trkpt lat="42.53704" lon="0.20266">
        <ele>749</ele>
        <time>2016-07-23T11:08:51Z</time>
      </trkpt>
      <trkpt lat="42.53707" lon="0.20264">
        <ele>749.7</ele>
        <time>2016-07-23T11:08:55Z</time>
      </trkpt>
      <trkpt lat="42.5371" lon="0.20263">
        <ele>750.3</ele>
        <time>2016-07-23T11:08:58Z</time>
      </trkpt>
      <trkpt lat="42.53712" lon="0.20261">
        <ele>750.3</ele>
        <time>2016-07-23T11:09:02Z</time>
      </trkpt>
      <trkpt lat="42.53715" lon="0.20258">
        <ele>750.7</ele>
        <time>2016-07-23T11:09:07Z</time>
      </trkpt>
      <trkpt lat="42.53718" lon="0.20257">
        <ele>751.5</ele>
        <time>2016-07-23T11:09:11Z</time>
      </trkpt>
      <trkpt lat="42.53721" lon="0.20256">
        <ele>752.5</ele>
        <time>2016-07-23T11:09:15Z</time>
      </trkpt>
      <trkpt lat="42.53724" lon="0.20254">
        <ele>753.2</ele>
        <time>2016-07-23T11:09:21Z</time>
      </trkpt>
      <trkpt lat="42.53727" lon="0.20251">
        <ele>753.4</ele>
        <time>2016-07-23T11:09:25Z</time>
      </trkpt>
      <trkpt lat="42.5373" lon="0.2025">
        <ele>754.2</ele>
        <time>2016-07-23T11:09:29Z</time>
      </trkpt>
      <trkpt lat="42.53732" lon="0.20249">
        <ele>754.9</ele>
        <time>2016-07-23T11:09:33Z</time>
      </trkpt>
      <trkpt lat="42.53735" lon="0.20247">
        <ele>755.5</ele>
        <time>2016-07-23T11:09:36Z</time>
      </trkpt>
      <trkpt lat="42.53738" lon="0.20245">
        <ele>756</ele>
        <time>2016-07-23T11:09:40Z</time>
      </trkpt>
      <trkpt lat="42.53741" lon="0.20244">
        <ele>757.3</ele>
        <time>2016-07-23T11:09:44Z</time>
      </trkpt>
      <trkpt lat="42.53744" lon="0.20245">
        <ele>759.2</ele>
        <time>2016-07-23T11:09:49Z</time>
      </trkpt>
      <trkpt lat="42.53747" lon="0.20243">
        <ele>760</ele>
        <time>2016-07-23T11:09:54Z</time>
      </trkpt>
      <trkpt lat="42.53749" lon="0.2024">
        <ele>759.9</ele>
        <time>2016-07-23T11:10:01Z</time>
      </trkpt>
      <trkpt lat="42.5375" lon="0.20235">
        <ele>758.5</ele>
        <time>2016-07-23T11:10:10Z</time>
      </trkpt>
      <trkpt lat="42.53752" lon="0.20232">
        <ele>758.5</ele>
        <time>2016-07-23T11:10:12Z</time>
      </trkpt>
      <trkpt lat="42.53754" lon="0.20229">
        <ele>758.9</ele>
        <time>2016-07-23T11:10:14Z</time>
      </trkpt>
      <trkpt lat="42.53757" lon="0.20227">
        <ele>759.3</ele>
        <time>2016-07-23T11:10:16Z</time>
      </trkpt>
      <trkpt lat="42.53759" lon="0.20223">
        <ele>759.5</ele>
        <time>2016-07-23T11:10:18Z</time>
      </trkpt>
      <trkpt lat="42.53762" lon="0.2022">
        <ele>760.1</ele>
        <time>2016-07-23T11:10:21Z</time>
      </trkpt>
      <trkpt lat="42.53765" lon="0.20215">
        <ele>760</ele>
        <time>2016-07-23T11:10:23Z</time>
      </trkpt>
      <trkpt lat="42.53767" lon="0.20211">
        <ele>759.8</ele>
        <time>2016-07-23T11:10:24Z</time>
      </trkpt>
      <trkpt lat="42.53768" lon="0.20208">
        <ele>759.8</ele>
        <time>2016-07-23T11:10:25Z</time>
      </trkpt>
      <trkpt lat="42.5377" lon="0.20205">
        <ele>760.1</ele>
        <time>2016-07-23T11:10:26Z</time>
      </trkpt>
      <trkpt lat="42.53773" lon="0.202">
        <ele>760.9</ele>
        <time>2016-07-23T11:10:28Z</time>
      </trkpt>
      <trkpt lat="42.53776" lon="0.20195">
        <ele>761.7</ele>
        <time>2016-07-23T11:10:30Z</time>
      </trkpt>
      <trkpt lat="42.53778" lon="0.20189">
        <ele>761.9</ele>
        <time>2016-07-23T11:10:32Z</time>
      </trkpt>
      <trkpt lat="42.53778" lon="0.20183">
        <ele>761</ele>
        <time>2016-07-23T11:10:34Z</time>
      </trkpt>
      <trkpt lat="42.53777" lon="0.20177">
        <ele>759.2</ele>
        <time>2016-07-23T11:10:36Z</time>
      </trkpt>
      <trkpt lat="42.53776" lon="0.20172">
        <ele>757.9</ele>
        <time>2016-07-23T11:10:38Z</time>
      </trkpt>
      <trkpt lat="42.53778" lon="0.20168">
        <ele>757.9</ele>
        <time>2016-07-23T11:10:40Z</time>
      </trkpt>
      <trkpt lat="42.5378" lon="0.20163">
        <ele>758.2</ele>
        <time>2016-07-23T11:10:42Z</time>
      </trkpt>
      <trkpt lat="42.53781" lon="0.20156">
        <ele>757.5</ele>
        <time>2016-07-23T11:10:44Z</time>
      </trkpt>
      <trkpt lat="42.53781" lon="0.20151">
        <ele>756.8</ele>
        <time>2016-07-23T11:10:45Z</time>
      </trkpt>
      <trkpt lat="42.53781" lon="0.20147">
        <ele>756.1</ele>
        <time>2016-07-23T11:10:46Z</time>
      </trkpt>
      <trkpt lat="42.53782" lon="0.20142">
        <ele>755.6</ele>
        <time>2016-07-23T11:10:47Z</time>
      </trkpt>
      <trkpt lat="42.53782" lon="0.20138">
        <ele>755</ele>
        <time>2016-07-23T11:10:48Z</time>
      </trkpt>
      <trkpt lat="42.53782" lon="0.20132">
        <ele>753.7</ele>
        <time>2016-07-23T11:10:50Z</time>
      </trkpt>
      <trkpt lat="42.53781" lon="0.20127">
        <ele>752.4</ele>
        <time>2016-07-23T11:10:52Z</time>
      </trkpt>
      <trkpt lat="42.5378" lon="0.20123">
        <ele>751.2</ele>
        <time>2016-07-23T11:10:55Z</time>
      </trkpt>
      <trkpt lat="42.53779" lon="0.20118">
        <ele>749.5</ele>
        <time>2016-07-23T11:10:59Z</time>
      </trkpt>
      <trkpt lat="42.53779" lon="0.20114">
        <ele>748.3</ele>
        <time>2016-07-23T11:11:01Z</time>
      </trkpt>
      <trkpt lat="42.53779" lon="0.2011">
        <ele>747.4</ele>
        <time>2016-07-23T11:11:03Z</time>
      </trkpt>
      <trkpt lat="42.53779" lon="0.20103">
        <ele>746.2</ele>
        <time>2016-07-23T11:11:06Z</time>
      </trkpt>
      <trkpt lat="42.53779" lon="0.20096">
        <ele>744.5</ele>
        <time>2016-07-23T11:11:08Z</time>
      </trkpt>
      <trkpt lat="42.53779" lon="0.20093">
        <ele>743.6</ele>
        <time>2016-07-23T11:11:09Z</time>
      </trkpt>
      <trkpt lat="42.53779" lon="0.20089">
        <ele>743</ele>
        <time>2016-07-23T11:11:10Z</time>
      </trkpt>
      <trkpt lat="42.5378" lon="0.20085">
        <ele>742.6</ele>
        <time>2016-07-23T11:11:11Z</time>
      </trkpt>
      <trkpt lat="42.53781" lon="0.20082">
        <ele>742.4</ele>
        <time>2016-07-23T11:11:12Z</time>
      </trkpt>
      <trkpt lat="42.53783" lon="0.20076">
        <ele>742.1</ele>
        <time>2016-07-23T11:11:14Z</time>
      </trkpt>
      <trkpt lat="42.53785" lon="0.20071">
        <ele>741.8</ele>
        <time>2016-07-23T11:11:16Z</time>
      </trkpt>
      <trkpt lat="42.53786" lon="0.20066">
        <ele>741.2</ele>
        <time>2016-07-23T11:11:18Z</time>
      </trkpt>
      <trkpt lat="42.53788" lon="0.2006">
        <ele>740.5</ele>
        <time>2016-07-23T11:11:20Z</time>
      </trkpt>
      <trkpt lat="42.5379" lon="0.20054">
        <ele>740.1</ele>
        <time>2016-07-23T11:11:22Z</time>
      </trkpt>
      <trkpt lat="42.53791" lon="0.20049">
        <ele>739.4</ele>
        <time>2016-07-23T11:11:24Z</time>
      </trkpt>
      <trkpt lat="42.53791" lon="0.20044">
        <ele>738</ele>
        <time>2016-07-23T11:11:27Z</time>
      </trkpt>
      <trkpt lat="42.53791" lon="0.20038">
        <ele>737.4</ele>
        <time>2016-07-23T11:11:29Z</time>
      </trkpt>
      <trkpt lat="42.53792" lon="0.20032">
        <ele>737.7</ele>
        <time>2016-07-23T11:11:31Z</time>
      </trkpt>
      <trkpt lat="42.53794" lon="0.20026">
        <ele>738.2</ele>
        <time>2016-07-23T11:11:33Z</time>
      </trkpt>
      <trkpt lat="42.53795" lon="0.2002">
        <ele>738.6</ele>
        <time>2016-07-23T11:11:35Z</time>
      </trkpt>
      <trkpt lat="42.53797" lon="0.20014">
        <ele>739.3</ele>
        <time>2016-07-23T11:11:37Z</time>
      </trkpt>
      <trkpt lat="42.53799" lon="0.20008">
        <ele>740.2</ele>
        <time>2016-07-23T11:11:39Z</time>
      </trkpt>
      <trkpt lat="42.53801" lon="0.2">
        <ele>740.8</ele>
        <time>2016-07-23T11:11:41Z</time>
      </trkpt>
      <trkpt lat="42.53802" lon="0.19996">
        <ele>741</ele>
        <time>2016-07-23T11:11:42Z</time>
      </trkpt>
      <trkpt lat="42.53803" lon="0.19993">
        <ele>741.4</ele>
        <time>2016-07-23T11:11:43Z</time>
      </trkpt>
      <trkpt lat="42.53804" lon="0.19989">
        <ele>741.6</ele>
        <time>2016-07-23T11:11:44Z</time>
      </trkpt>
      <trkpt lat="42.53806" lon="0.19983">
        <ele>742.1</ele>
        <time>2016-07-23T11:11:46Z</time>
      </trkpt>
      <trkpt lat="42.53809" lon="0.19978">
        <ele>743</ele>
        <time>2016-07-23T11:11:48Z</time>
      </trkpt>
      <trkpt lat="42.53811" lon="0.19974">
        <ele>743.7</ele>
        <time>2016-07-23T11:11:50Z</time>
      </trkpt>
      <trkpt lat="42.53812" lon="0.1997">
        <ele>744.2</ele>
        <time>2016-07-23T11:11:52Z</time>
      </trkpt>
      <trkpt lat="42.53813" lon="0.19966">
        <ele>744.3</ele>
        <time>2016-07-23T11:11:54Z</time>
      </trkpt>
      <trkpt lat="42.53815" lon="0.19962">
        <ele>744.4</ele>
        <time>2016-07-23T11:11:56Z</time>
      </trkpt>
      <trkpt lat="42.53816" lon="0.19956">
        <ele>744.3</ele>
        <time>2016-07-23T11:11:58Z</time>
      </trkpt>
      <trkpt lat="42.53817" lon="0.19952">
        <ele>743.9</ele>
        <time>2016-07-23T11:12:00Z</time>
      </trkpt>
      <trkpt lat="42.53819" lon="0.19948">
        <ele>743.7</ele>
        <time>2016-07-23T11:12:22Z</time>
      </trkpt>
      <trkpt lat="42.53821" lon="0.19944">
        <ele>743.6</ele>
        <time>2016-07-23T11:12:29Z</time>
      </trkpt>
      <trkpt lat="42.53821" lon="0.19939">
        <ele>742.3</ele>
        <time>2016-07-23T11:12:54Z</time>
      </trkpt>
      <trkpt lat="42.53823" lon="0.19936">
        <ele>742.6</ele>
        <time>2016-07-23T11:13:04Z</time>
      </trkpt>
      <trkpt lat="42.53824" lon="0.19932">
        <ele>742.1</ele>
        <time>2016-07-23T11:13:07Z</time>
      </trkpt>
      <trkpt lat="42.53825" lon="0.19928">
        <ele>741.8</ele>
        <time>2016-07-23T11:13:11Z</time>
      </trkpt>
      <trkpt lat="42.53826" lon="0.19924">
        <ele>741.3</ele>
        <time>2016-07-23T11:13:14Z</time>
      </trkpt>
      <trkpt lat="42.53827" lon="0.1992">
        <ele>740.6</ele>
        <time>2016-07-23T11:13:17Z</time>
      </trkpt>
      <trkpt lat="42.53828" lon="0.19916">
        <ele>740.1</ele>
        <time>2016-07-23T11:13:20Z</time>
      </trkpt>
      <trkpt lat="42.5383" lon="0.19912">
        <ele>739.9</ele>
        <time>2016-07-23T11:13:23Z</time>
      </trkpt>
      <trkpt lat="42.53831" lon="0.19908">
        <ele>739.3</ele>
        <time>2016-07-23T11:13:27Z</time>
      </trkpt>
      <trkpt lat="42.53832" lon="0.19904">
        <ele>738.9</ele>
        <time>2016-07-23T11:13:33Z</time>
      </trkpt>
      <trkpt lat="42.53833" lon="0.19899">
        <ele>738</ele>
        <time>2016-07-23T11:13:35Z</time>
      </trkpt>
      <trkpt lat="42.53836" lon="0.19893">
        <ele>737.8</ele>
        <time>2016-07-23T11:13:37Z</time>
      </trkpt>
      <trkpt lat="42.53839" lon="0.1989">
        <ele>738.2</ele>
        <time>2016-07-23T11:13:39Z</time>
      </trkpt>
      <trkpt lat="42.53841" lon="0.19886">
        <ele>738.1</ele>
        <time>2016-07-23T11:13:41Z</time>
      </trkpt>
      <trkpt lat="42.53843" lon="0.1988">
        <ele>737.2</ele>
        <time>2016-07-23T11:13:43Z</time>
      </trkpt>
      <trkpt lat="42.53845" lon="0.19876">
        <ele>736.8</ele>
        <time>2016-07-23T11:13:44Z</time>
      </trkpt>
      <trkpt lat="42.53846" lon="0.19872">
        <ele>736.2</ele>
        <time>2016-07-23T11:13:45Z</time>
      </trkpt>
      <trkpt lat="42.53849" lon="0.19869">
        <ele>736</ele>
        <time>2016-07-23T11:13:46Z</time>
      </trkpt>
      <trkpt lat="42.53851" lon="0.19867">
        <ele>736</ele>
        <time>2016-07-23T11:13:47Z</time>
      </trkpt>
      <trkpt lat="42.53854" lon="0.19866">
        <ele>736.4</ele>
        <time>2016-07-23T11:13:48Z</time>
      </trkpt>
      <trkpt lat="42.53858" lon="0.19862">
        <ele>736.8</ele>
        <time>2016-07-23T11:13:50Z</time>
      </trkpt>
      <trkpt lat="42.53861" lon="0.1986">
        <ele>737</ele>
        <time>2016-07-23T11:13:51Z</time>
      </trkpt>
      <trkpt lat="42.53864" lon="0.19858">
        <ele>737.1</ele>
        <time>2016-07-23T11:13:52Z</time>
      </trkpt>
      <trkpt lat="42.53867" lon="0.19856">
        <ele>737.2</ele>
        <time>2016-07-23T11:13:53Z</time>
      </trkpt>
      <trkpt lat="42.5387" lon="0.19853">
        <ele>737.3</ele>
        <time>2016-07-23T11:13:54Z</time>
      </trkpt>
      <trkpt lat="42.53873" lon="0.19851">
        <ele>737.4</ele>
        <time>2016-07-23T11:13:55Z</time>
      </trkpt>
      <trkpt lat="42.53876" lon="0.19849">
        <ele>737.5</ele>
        <time>2016-07-23T11:13:56Z</time>
      </trkpt>
      <trkpt lat="42.53879" lon="0.19848">
        <ele>737.7</ele>
        <time>2016-07-23T11:13:57Z</time>
      </trkpt>
      <trkpt lat="42.53882" lon="0.19846">
        <ele>737.6</ele>
        <time>2016-07-23T11:13:58Z</time>
      </trkpt>
      <trkpt lat="42.53885" lon="0.19842">
        <ele>736.7</ele>
        <time>2016-07-23T11:14:00Z</time>
      </trkpt>
      <trkpt lat="42.5389" lon="0.19839">
        <ele>736.3</ele>
        <time>2016-07-23T11:14:02Z</time>
      </trkpt>
      <trkpt lat="42.53893" lon="0.19838">
        <ele>736.5</ele>
        <time>2016-07-23T11:14:03Z</time>
      </trkpt>
      <trkpt lat="42.53896" lon="0.19837">
        <ele>737.1</ele>
        <time>2016-07-23T11:14:04Z</time>
      </trkpt>
      <trkpt lat="42.53901" lon="0.19836">
        <ele>737.9</ele>
        <time>2016-07-23T11:14:06Z</time>
      </trkpt>
      <trkpt lat="42.53904" lon="0.19835">
        <ele>738.2</ele>
        <time>2016-07-23T11:14:07Z</time>
      </trkpt>
      <trkpt lat="42.53906" lon="0.19834">
        <ele>738.5</ele>
        <time>2016-07-23T11:14:08Z</time>
      </trkpt>
      <trkpt lat="42.53909" lon="0.19833">
        <ele>738.7</ele>
        <time>2016-07-23T11:14:09Z</time>
      </trkpt>
      <trkpt lat="42.53912" lon="0.19832">
        <ele>738.9</ele>
        <time>2016-07-23T11:14:10Z</time>
      </trkpt>
      <trkpt lat="42.53915" lon="0.1983">
        <ele>738.7</ele>
        <time>2016-07-23T11:14:11Z</time>
      </trkpt>
      <trkpt lat="42.53918" lon="0.19827">
        <ele>738.1</ele>
        <time>2016-07-23T11:14:12Z</time>
      </trkpt>
      <trkpt lat="42.5392" lon="0.19824">
        <ele>737.2</ele>
        <time>2016-07-23T11:14:13Z</time>
      </trkpt>
      <trkpt lat="42.53922" lon="0.19822">
        <ele>736.3</ele>
        <time>2016-07-23T11:14:14Z</time>
      </trkpt>
      <trkpt lat="42.53923" lon="0.19819">
        <ele>735.3</ele>
        <time>2016-07-23T11:14:15Z</time>
      </trkpt>
      <trkpt lat="42.53925" lon="0.19816">
        <ele>734.5</ele>
        <time>2016-07-23T11:14:16Z</time>
      </trkpt>
      <trkpt lat="42.53929" lon="0.19813">
        <ele>733.8</ele>
        <time>2016-07-23T11:14:18Z</time>
      </trkpt>
      <trkpt lat="42.53932" lon="0.19811">
        <ele>733.5</ele>
        <time>2016-07-23T11:14:19Z</time>
      </trkpt>
      <trkpt lat="42.53935" lon="0.1981">
        <ele>733.5</ele>
        <time>2016-07-23T11:14:20Z</time>
      </trkpt>
      <trkpt lat="42.53939" lon="0.19808">
        <ele>733.6</ele>
        <time>2016-07-23T11:14:21Z</time>
      </trkpt>
      <trkpt lat="42.53943" lon="0.19806">
        <ele>733.5</ele>
        <time>2016-07-23T11:14:22Z</time>
      </trkpt>
      <trkpt lat="42.53947" lon="0.19803">
        <ele>733.4</ele>
        <time>2016-07-23T11:14:23Z</time>
      </trkpt>
      <trkpt lat="42.53951" lon="0.19801">
        <ele>733.2</ele>
        <time>2016-07-23T11:14:24Z</time>
      </trkpt>
      <trkpt lat="42.53955" lon="0.19799">
        <ele>733</ele>
        <time>2016-07-23T11:14:25Z</time>
      </trkpt>
      <trkpt lat="42.53959" lon="0.19797">
        <ele>733</ele>
        <time>2016-07-23T11:14:26Z</time>
      </trkpt>
      <trkpt lat="42.53962" lon="0.19796">
        <ele>732.8</ele>
        <time>2016-07-23T11:14:27Z</time>
      </trkpt>
      <trkpt lat="42.53965" lon="0.19794">
        <ele>732.6</ele>
        <time>2016-07-23T11:14:28Z</time>
      </trkpt>
      <trkpt lat="42.53968" lon="0.19792">
        <ele>732.3</ele>
        <time>2016-07-23T11:14:29Z</time>
      </trkpt>
      <trkpt lat="42.53971" lon="0.1979">
        <ele>732.1</ele>
        <time>2016-07-23T11:14:30Z</time>
      </trkpt>
      <trkpt lat="42.53974" lon="0.19785">
        <ele>731.2</ele>
        <time>2016-07-23T11:14:32Z</time>
      </trkpt>
      <trkpt lat="42.53977" lon="0.19779">
        <ele>730</ele>
        <time>2016-07-23T11:14:34Z</time>
      </trkpt>
      <trkpt lat="42.53979" lon="0.19775">
        <ele>728.9</ele>
        <time>2016-07-23T11:14:36Z</time>
      </trkpt>
      <trkpt lat="42.5398" lon="0.19771">
        <ele>728</ele>
        <time>2016-07-23T11:14:38Z</time>
      </trkpt>
      <trkpt lat="42.53981" lon="0.19767">
        <ele>727</ele>
        <time>2016-07-23T11:14:40Z</time>
      </trkpt>
      <trkpt lat="42.53982" lon="0.19763">
        <ele>726.1</ele>
        <time>2016-07-23T11:14:42Z</time>
      </trkpt>
      <trkpt lat="42.53983" lon="0.19758">
        <ele>724.9</ele>
        <time>2016-07-23T11:14:44Z</time>
      </trkpt>
      <trkpt lat="42.53986" lon="0.19755">
        <ele>724.3</ele>
        <time>2016-07-23T11:14:46Z</time>
      </trkpt>
      <trkpt lat="42.53988" lon="0.19752">
        <ele>723.9</ele>
        <time>2016-07-23T11:14:49Z</time>
      </trkpt>
      <trkpt lat="42.53988" lon="0.19747">
        <ele>722.7</ele>
        <time>2016-07-23T11:14:53Z</time>
      </trkpt>
      <trkpt lat="42.5399" lon="0.19744">
        <ele>722.1</ele>
        <time>2016-07-23T11:14:55Z</time>
      </trkpt>
      <trkpt lat="42.53992" lon="0.1974">
        <ele>721.4</ele>
        <time>2016-07-23T11:14:57Z</time>
      </trkpt>
      <trkpt lat="42.53994" lon="0.19736">
        <ele>720.8</ele>
        <time>2016-07-23T11:14:59Z</time>
      </trkpt>
      <trkpt lat="42.53995" lon="0.19733">
        <ele>720</ele>
        <time>2016-07-23T11:15:01Z</time>
      </trkpt>
      <trkpt lat="42.53996" lon="0.19727">
        <ele>718.7</ele>
        <time>2016-07-23T11:15:03Z</time>
      </trkpt>
      <trkpt lat="42.53998" lon="0.19723">
        <ele>718</ele>
        <time>2016-07-23T11:15:04Z</time>
      </trkpt>
      <trkpt lat="42.54001" lon="0.19719">
        <ele>717.5</ele>
        <time>2016-07-23T11:15:05Z</time>
      </trkpt>
      <trkpt lat="42.54004" lon="0.19715">
        <ele>717.1</ele>
        <time>2016-07-23T11:15:06Z</time>
      </trkpt>
      <trkpt lat="42.54007" lon="0.19711">
        <ele>716.7</ele>
        <time>2016-07-23T11:15:07Z</time>
      </trkpt>
      <trkpt lat="42.5401" lon="0.19707">
        <ele>716.5</ele>
        <time>2016-07-23T11:15:08Z</time>
      </trkpt>
      <trkpt lat="42.54012" lon="0.19703">
        <ele>716.5</ele>
        <time>2016-07-23T11:15:09Z</time>
      </trkpt>
      <trkpt lat="42.54015" lon="0.19699">
        <ele>716.4</ele>
        <time>2016-07-23T11:15:10Z</time>
      </trkpt>
      <trkpt lat="42.54017" lon="0.19696">
        <ele>716.3</ele>
        <time>2016-07-23T11:15:11Z</time>
      </trkpt>
      <trkpt lat="42.54019" lon="0.19692">
        <ele>716.2</ele>
        <time>2016-07-23T11:15:12Z</time>
      </trkpt>
      <trkpt lat="42.54021" lon="0.19689">
        <ele>716.1</ele>
        <time>2016-07-23T11:15:13Z</time>
      </trkpt>
      <trkpt lat="42.54024" lon="0.19687">
        <ele>716.1</ele>
        <time>2016-07-23T11:15:14Z</time>
      </trkpt>
      <trkpt lat="42.54027" lon="0.19682">
        <ele>715.9</ele>
        <time>2016-07-23T11:15:16Z</time>
      </trkpt>
      <trkpt lat="42.54027" lon="0.19676">
        <ele>714.7</ele>
        <time>2016-07-23T11:15:18Z</time>
      </trkpt>
      <trkpt lat="42.54026" lon="0.19669">
        <ele>712.9</ele>
        <time>2016-07-23T11:15:20Z</time>
      </trkpt>
      <trkpt lat="42.54026" lon="0.19662">
        <ele>711.5</ele>
        <time>2016-07-23T11:15:22Z</time>
      </trkpt>
      <trkpt lat="42.54028" lon="0.19658">
        <ele>710.9</ele>
        <time>2016-07-23T11:15:23Z</time>
      </trkpt>
      <trkpt lat="42.5403" lon="0.19655">
        <ele>710.6</ele>
        <time>2016-07-23T11:15:24Z</time>
      </trkpt>
      <trkpt lat="42.54032" lon="0.19653">
        <ele>710.6</ele>
        <time>2016-07-23T11:15:25Z</time>
      </trkpt>
      <trkpt lat="42.54035" lon="0.19651">
        <ele>710.8</ele>
        <time>2016-07-23T11:15:26Z</time>
      </trkpt>
      <trkpt lat="42.54038" lon="0.19649">
        <ele>711</ele>
        <time>2016-07-23T11:15:27Z</time>
      </trkpt>
      <trkpt lat="42.5404" lon="0.19646">
        <ele>710.8</ele>
        <time>2016-07-23T11:15:28Z</time>
      </trkpt>
      <trkpt lat="42.54042" lon="0.19643">
        <ele>710.2</ele>
        <time>2016-07-23T11:15:29Z</time>
      </trkpt>
      <trkpt lat="42.54044" lon="0.19637">
        <ele>709.4</ele>
        <time>2016-07-23T11:15:30Z</time>
      </trkpt>
      <trkpt lat="42.54048" lon="0.19629">
        <ele>708.7</ele>
        <time>2016-07-23T11:15:31Z</time>
      </trkpt>
      <trkpt lat="42.54052" lon="0.19622">
        <ele>708.3</ele>
        <time>2016-07-23T11:15:32Z</time>
      </trkpt>
      <trkpt lat="42.54057" lon="0.19615">
        <ele>708.2</ele>
        <time>2016-07-23T11:15:33Z</time>
      </trkpt>
      <trkpt lat="42.54061" lon="0.19608">
        <ele>708.1</ele>
        <time>2016-07-23T11:15:34Z</time>
      </trkpt>
      <trkpt lat="42.54066" lon="0.19602">
        <ele>708.2</ele>
        <time>2016-07-23T11:15:35Z</time>
      </trkpt>
      <trkpt lat="42.5407" lon="0.19595">
        <ele>708.2</ele>
        <time>2016-07-23T11:15:36Z</time>
      </trkpt>
      <trkpt lat="42.54074" lon="0.19591">
        <ele>708.3</ele>
        <time>2016-07-23T11:15:37Z</time>
      </trkpt>
      <trkpt lat="42.54078" lon="0.19585">
        <ele>708.3</ele>
        <time>2016-07-23T11:15:38Z</time>
      </trkpt>
      <trkpt lat="42.54082" lon="0.19579">
        <ele>708.4</ele>
        <time>2016-07-23T11:15:39Z</time>
      </trkpt>
      <trkpt lat="42.54087" lon="0.19575">
        <ele>708.8</ele>
        <time>2016-07-23T11:15:40Z</time>
      </trkpt>
      <trkpt lat="42.5409" lon="0.19571">
        <ele>709</ele>
        <time>2016-07-23T11:15:41Z</time>
      </trkpt>
      <trkpt lat="42.54094" lon="0.19565">
        <ele>709.1</ele>
        <time>2016-07-23T11:15:42Z</time>
      </trkpt>
      <trkpt lat="42.54098" lon="0.19559">
        <ele>709</ele>
        <time>2016-07-23T11:15:43Z</time>
      </trkpt>
      <trkpt lat="42.54093" lon="0.19556">
        <ele>707.2</ele>
        <time>2016-07-23T11:16:05Z</time>
      </trkpt>
      <trkpt lat="42.54091" lon="0.19554">
        <ele>706.3</ele>
        <time>2016-07-23T11:16:06Z</time>
      </trkpt>
      <trkpt lat="42.54088" lon="0.19554">
        <ele>705.2</ele>
        <time>2016-07-23T11:16:07Z</time>
      </trkpt>
      <trkpt lat="42.54083" lon="0.19554">
        <ele>704.2</ele>
        <time>2016-07-23T11:16:08Z</time>
      </trkpt>
      <trkpt lat="42.54078" lon="0.19557">
        <ele>703.3</ele>
        <time>2016-07-23T11:16:09Z</time>
      </trkpt>
      <trkpt lat="42.54072" lon="0.1956">
        <ele>702.3</ele>
        <time>2016-07-23T11:16:10Z</time>
      </trkpt>
      <trkpt lat="42.54063" lon="0.19567">
        <ele>701.3</ele>
        <time>2016-07-23T11:16:11Z</time>
      </trkpt>
      <trkpt lat="42.54057" lon="0.19572">
        <ele>700.4</ele>
        <time>2016-07-23T11:16:12Z</time>
      </trkpt>
      <trkpt lat="42.5405" lon="0.19579">
        <ele>699.9</ele>
        <time>2016-07-23T11:16:13Z</time>
      </trkpt>
      <trkpt lat="42.54043" lon="0.19583">
        <ele>698.8</ele>
        <time>2016-07-23T11:16:14Z</time>
      </trkpt>
      <trkpt lat="42.54035" lon="0.19588">
        <ele>699</ele>
        <time>2016-07-23T11:16:15Z</time>
      </trkpt>
      <trkpt lat="42.54026" lon="0.19593">
        <ele>699.1</ele>
        <time>2016-07-23T11:16:16Z</time>
      </trkpt>
      <trkpt lat="42.54018" lon="0.19598">
        <ele>699</ele>
        <time>2016-07-23T11:16:17Z</time>
      </trkpt>
      <trkpt lat="42.54009" lon="0.19603">
        <ele>698.7</ele>
        <time>2016-07-23T11:16:18Z</time>
      </trkpt>
      <trkpt lat="42.54001" lon="0.19608">
        <ele>698.2</ele>
        <time>2016-07-23T11:16:19Z</time>
      </trkpt>
      <trkpt lat="42.53993" lon="0.19614">
        <ele>697.4</ele>
        <time>2016-07-23T11:16:20Z</time>
      </trkpt>
      <trkpt lat="42.53986" lon="0.19622">
        <ele>696.5</ele>
        <time>2016-07-23T11:16:21Z</time>
      </trkpt>
      <trkpt lat="42.53978" lon="0.19628">
        <ele>695.8</ele>
        <time>2016-07-23T11:16:22Z</time>
      </trkpt>
      <trkpt lat="42.53972" lon="0.19635">
        <ele>695.6</ele>
        <time>2016-07-23T11:16:23Z</time>
      </trkpt>
      <trkpt lat="42.53969" lon="0.19639">
        <ele>695.7</ele>
        <time>2016-07-23T11:16:24Z</time>
      </trkpt>
      <trkpt lat="42.53965" lon="0.19642">
        <ele>695.3</ele>
        <time>2016-07-23T11:16:25Z</time>
      </trkpt>
      <trkpt lat="42.53962" lon="0.19645">
        <ele>695.2</ele>
        <time>2016-07-23T11:16:26Z</time>
      </trkpt>
      <trkpt lat="42.53958" lon="0.19645">
        <ele>694.4</ele>
        <time>2016-07-23T11:16:27Z</time>
      </trkpt>
      <trkpt lat="42.53957" lon="0.19642">
        <ele>694.1</ele>
        <time>2016-07-23T11:16:28Z</time>
      </trkpt>
      <trkpt lat="42.53962" lon="0.19631">
        <ele>693.4</ele>
        <time>2016-07-23T11:16:30Z</time>
      </trkpt>
      <trkpt lat="42.53964" lon="0.19623">
        <ele>693</ele>
        <time>2016-07-23T11:16:31Z</time>
      </trkpt>
      <trkpt lat="42.53965" lon="0.19615">
        <ele>693.7</ele>
        <time>2016-07-23T11:16:32Z</time>
      </trkpt>
      <trkpt lat="42.53969" lon="0.19606">
        <ele>694.5</ele>
        <time>2016-07-23T11:16:33Z</time>
      </trkpt>
      <trkpt lat="42.53973" lon="0.19599">
        <ele>695.2</ele>
        <time>2016-07-23T11:16:34Z</time>
      </trkpt>
      <trkpt lat="42.53977" lon="0.19593">
        <ele>695.6</ele>
        <time>2016-07-23T11:16:35Z</time>
      </trkpt>
      <trkpt lat="42.53979" lon="0.19588">
        <ele>695.8</ele>
        <time>2016-07-23T11:16:36Z</time>
      </trkpt>
      <trkpt lat="42.53982" lon="0.19582">
        <ele>696</ele>
        <time>2016-07-23T11:16:37Z</time>
      </trkpt>
      <trkpt lat="42.53986" lon="0.19576">
        <ele>696.1</ele>
        <time>2016-07-23T11:16:38Z</time>
      </trkpt>
      <trkpt lat="42.53989" lon="0.19569">
        <ele>696</ele>
        <time>2016-07-23T11:16:39Z</time>
      </trkpt>
      <trkpt lat="42.53992" lon="0.19562">
        <ele>695.8</ele>
        <time>2016-07-23T11:16:40Z</time>
      </trkpt>
      <trkpt lat="42.53994" lon="0.19555">
        <ele>695.5</ele>
        <time>2016-07-23T11:16:41Z</time>
      </trkpt>
      <trkpt lat="42.53996" lon="0.19549">
        <ele>695.1</ele>
        <time>2016-07-23T11:16:42Z</time>
      </trkpt>
      <trkpt lat="42.53998" lon="0.19541">
        <ele>694.7</ele>
        <time>2016-07-23T11:16:44Z</time>
      </trkpt>
      <trkpt lat="42.54" lon="0.19537">
        <ele>695.3</ele>
        <time>2016-07-23T11:16:45Z</time>
      </trkpt>
      <trkpt lat="42.54003" lon="0.19531">
        <ele>695.9</ele>
        <time>2016-07-23T11:16:47Z</time>
      </trkpt>
      <trkpt lat="42.54005" lon="0.19527">
        <ele>696.4</ele>
        <time>2016-07-23T11:16:49Z</time>
      </trkpt>
      <trkpt lat="42.54006" lon="0.19523">
        <ele>696.8</ele>
        <time>2016-07-23T11:16:52Z</time>
      </trkpt>
      <trkpt lat="42.54007" lon="0.19519">
        <ele>697.2</ele>
        <time>2016-07-23T11:16:54Z</time>
      </trkpt>
      <trkpt lat="42.54006" lon="0.19516">
        <ele>697.9</ele>
        <time>2016-07-23T11:17:00Z</time>
      </trkpt>
      <trkpt lat="42.54007" lon="0.19512">
        <ele>698.2</ele>
        <time>2016-07-23T11:17:04Z</time>
      </trkpt>
      <trkpt lat="42.54008" lon="0.19508">
        <ele>698.6</ele>
        <time>2016-07-23T11:17:10Z</time>
      </trkpt>
      <trkpt lat="42.54009" lon="0.19504">
        <ele>698.9</ele>
        <time>2016-07-23T11:17:16Z</time>
      </trkpt>
      <trkpt lat="42.5401" lon="0.195">
        <ele>699.3</ele>
        <time>2016-07-23T11:17:21Z</time>
      </trkpt>
      <trkpt lat="42.5401" lon="0.19496">
        <ele>699.6</ele>
        <time>2016-07-23T11:17:24Z</time>
      </trkpt>
      <trkpt lat="42.5401" lon="0.19491">
        <ele>700.4</ele>
        <time>2016-07-23T11:17:27Z</time>
      </trkpt>
      <trkpt lat="42.54009" lon="0.19486">
        <ele>701.3</ele>
        <time>2016-07-23T11:17:29Z</time>
      </trkpt>
      <trkpt lat="42.54007" lon="0.19478">
        <ele>703</ele>
        <time>2016-07-23T11:17:31Z</time>
      </trkpt>
      <trkpt lat="42.54005" lon="0.19473">
        <ele>704.4</ele>
        <time>2016-07-23T11:17:32Z</time>
      </trkpt>
      <trkpt lat="42.54004" lon="0.19467">
        <ele>705.8</ele>
        <time>2016-07-23T11:17:33Z</time>
      </trkpt>
      <trkpt lat="42.54002" lon="0.19461">
        <ele>707.4</ele>
        <time>2016-07-23T11:17:34Z</time>
      </trkpt>
      <trkpt lat="42.54" lon="0.19456">
        <ele>709.5</ele>
        <time>2016-07-23T11:17:35Z</time>
      </trkpt>
      <trkpt lat="42.53998" lon="0.1945">
        <ele>711.8</ele>
        <time>2016-07-23T11:17:36Z</time>
      </trkpt>
      <trkpt lat="42.53997" lon="0.19445">
        <ele>714.1</ele>
        <time>2016-07-23T11:17:37Z</time>
      </trkpt>
      <trkpt lat="42.53995" lon="0.1944">
        <ele>716.4</ele>
        <time>2016-07-23T11:17:38Z</time>
      </trkpt>
      <trkpt lat="42.53994" lon="0.19435">
        <ele>718.6</ele>
        <time>2016-07-23T11:17:39Z</time>
      </trkpt>
      <trkpt lat="42.53992" lon="0.19431">
        <ele>720.6</ele>
        <time>2016-07-23T11:17:40Z</time>
      </trkpt>
      <trkpt lat="42.53992" lon="0.19427">
        <ele>722.2</ele>
        <time>2016-07-23T11:17:41Z</time>
      </trkpt>
      <trkpt lat="42.53992" lon="0.19423">
        <ele>723.5</ele>
        <time>2016-07-23T11:17:43Z</time>
      </trkpt>
      <trkpt lat="42.53995" lon="0.1942">
        <ele>723.2</ele>
        <time>2016-07-23T11:17:46Z</time>
      </trkpt>
      <trkpt lat="42.53998" lon="0.19421">
        <ele>721.5</ele>
        <time>2016-07-23T11:17:52Z</time>
      </trkpt>
      <trkpt lat="42.54001" lon="0.1942">
        <ele>720.4</ele>
        <time>2016-07-23T11:17:56Z</time>
      </trkpt>
      <trkpt lat="42.54004" lon="0.1942">
        <ele>718.9</ele>
        <time>2016-07-23T11:18:00Z</time>
      </trkpt>
      <trkpt lat="42.54008" lon="0.19421">
        <ele>717.1</ele>
        <time>2016-07-23T11:18:02Z</time>
      </trkpt>
      <trkpt lat="42.54012" lon="0.1942">
        <ele>715.5</ele>
        <time>2016-07-23T11:18:04Z</time>
      </trkpt>
      <trkpt lat="42.54017" lon="0.19416">
        <ele>714.6</ele>
        <time>2016-07-23T11:18:06Z</time>
      </trkpt>
      <trkpt lat="42.54019" lon="0.19413">
        <ele>714.4</ele>
        <time>2016-07-23T11:18:07Z</time>
      </trkpt>
      <trkpt lat="42.54022" lon="0.19409">
        <ele>714.3</ele>
        <time>2016-07-23T11:18:08Z</time>
      </trkpt>
      <trkpt lat="42.54024" lon="0.19406">
        <ele>714.1</ele>
        <time>2016-07-23T11:18:09Z</time>
      </trkpt>
      <trkpt lat="42.54026" lon="0.19403">
        <ele>713.8</ele>
        <time>2016-07-23T11:18:10Z</time>
      </trkpt>
      <trkpt lat="42.54029" lon="0.19401">
        <ele>713.3</ele>
        <time>2016-07-23T11:18:11Z</time>
      </trkpt>
      <trkpt lat="42.54033" lon="0.19397">
        <ele>711.9</ele>
        <time>2016-07-23T11:18:13Z</time>
      </trkpt>
      <trkpt lat="42.54036" lon="0.19396">
        <ele>710.8</ele>
        <time>2016-07-23T11:18:14Z</time>
      </trkpt>
      <trkpt lat="42.54039" lon="0.19394">
        <ele>709.9</ele>
        <time>2016-07-23T11:18:15Z</time>
      </trkpt>
      <trkpt lat="42.54043" lon="0.19391">
        <ele>709</ele>
        <time>2016-07-23T11:18:17Z</time>
      </trkpt>
      <trkpt lat="42.54046" lon="0.19389">
        <ele>709</ele>
        <time>2016-07-23T11:18:19Z</time>
      </trkpt>
      <trkpt lat="42.54048" lon="0.19386">
        <ele>709.2</ele>
        <time>2016-07-23T11:18:21Z</time>
      </trkpt>
      <trkpt lat="42.54051" lon="0.19383">
        <ele>709.3</ele>
        <time>2016-07-23T11:18:23Z</time>
      </trkpt>
      <trkpt lat="42.54053" lon="0.19381">
        <ele>709.3</ele>
        <time>2016-07-23T11:18:28Z</time>
      </trkpt>
      <trkpt lat="42.54056" lon="0.19378">
        <ele>709.3</ele>
        <time>2016-07-23T11:18:32Z</time>
      </trkpt>
      <trkpt lat="42.54057" lon="0.19375">
        <ele>709.8</ele>
        <time>2016-07-23T11:18:36Z</time>
      </trkpt>
      <trkpt lat="42.54055" lon="0.1937">
        <ele>711.2</ele>
        <time>2016-07-23T11:18:38Z</time>
      </trkpt>
      <trkpt lat="42.54054" lon="0.19366">
        <ele>712.5</ele>
        <time>2016-07-23T11:18:40Z</time>
      </trkpt>
      <trkpt lat="42.54051" lon="0.19362">
        <ele>714.1</ele>
        <time>2016-07-23T11:18:43Z</time>
      </trkpt>
      <trkpt lat="42.54049" lon="0.19359">
        <ele>715.5</ele>
        <time>2016-07-23T11:18:45Z</time>
      </trkpt>
      <trkpt lat="42.54047" lon="0.19355">
        <ele>716.7</ele>
        <time>2016-07-23T11:18:47Z</time>
      </trkpt>
      <trkpt lat="42.54046" lon="0.19351">
        <ele>718.1</ele>
        <time>2016-07-23T11:18:50Z</time>
      </trkpt>
      <trkpt lat="42.54045" lon="0.19348">
        <ele>719.4</ele>
        <time>2016-07-23T11:18:52Z</time>
      </trkpt>
      <trkpt lat="42.54043" lon="0.19343">
        <ele>720.9</ele>
        <time>2016-07-23T11:18:54Z</time>
      </trkpt>
      <trkpt lat="42.54043" lon="0.19337">
        <ele>722.5</ele>
        <time>2016-07-23T11:18:56Z</time>
      </trkpt>
      <trkpt lat="42.54044" lon="0.19331">
        <ele>724</ele>
        <time>2016-07-23T11:18:58Z</time>
      </trkpt>
      <trkpt lat="42.54043" lon="0.19325">
        <ele>725.8</ele>
        <time>2016-07-23T11:19:00Z</time>
      </trkpt>
      <trkpt lat="42.54042" lon="0.1932">
        <ele>727.2</ele>
        <time>2016-07-23T11:19:02Z</time>
      </trkpt>
      <trkpt lat="42.54043" lon="0.19316">
        <ele>728</ele>
        <time>2016-07-23T11:19:04Z</time>
      </trkpt>
      <trkpt lat="42.54043" lon="0.19313">
        <ele>729.1</ele>
        <time>2016-07-23T11:19:06Z</time>
      </trkpt>
      <trkpt lat="42.54043" lon="0.19308">
        <ele>730.3</ele>
        <time>2016-07-23T11:19:08Z</time>
      </trkpt>
      <trkpt lat="42.54044" lon="0.19303">
        <ele>731.3</ele>
        <time>2016-07-23T11:19:10Z</time>
      </trkpt>
      <trkpt lat="42.54044" lon="0.19297">
        <ele>732.6</ele>
        <time>2016-07-23T11:19:12Z</time>
      </trkpt>
      <trkpt lat="42.54045" lon="0.19293">
        <ele>733.2</ele>
        <time>2016-07-23T11:19:15Z</time>
      </trkpt>
      <trkpt lat="42.54047" lon="0.19288">
        <ele>733.5</ele>
        <time>2016-07-23T11:19:19Z</time>
      </trkpt>
      <trkpt lat="42.54044" lon="0.19286">
        <ele>735.3</ele>
        <time>2016-07-23T11:19:24Z</time>
      </trkpt>
      <trkpt lat="42.54041" lon="0.19287">
        <ele>736.5</ele>
        <time>2016-07-23T11:19:34Z</time>
      </trkpt>
      <trkpt lat="42.54039" lon="0.19286">
        <ele>738.3</ele>
        <time>2016-07-23T11:19:41Z</time>
      </trkpt>
      <trkpt lat="42.54037" lon="0.19282">
        <ele>740.2</ele>
        <time>2016-07-23T11:19:49Z</time>
      </trkpt>
      <trkpt lat="42.54038" lon="0.19278">
        <ele>740.6</ele>
        <time>2016-07-23T11:19:52Z</time>
      </trkpt>
      <trkpt lat="42.54039" lon="0.19274">
        <ele>740.9</ele>
        <time>2016-07-23T11:19:55Z</time>
      </trkpt>
      <trkpt lat="42.5404" lon="0.19271">
        <ele>741</ele>
        <time>2016-07-23T11:20:02Z</time>
      </trkpt>
      <trkpt lat="42.54042" lon="0.19267">
        <ele>740.9</ele>
        <time>2016-07-23T11:20:06Z</time>
      </trkpt>
      <trkpt lat="42.54044" lon="0.19262">
        <ele>741.1</ele>
        <time>2016-07-23T11:20:08Z</time>
      </trkpt>
      <trkpt lat="42.54046" lon="0.19259">
        <ele>741.3</ele>
        <time>2016-07-23T11:20:09Z</time>
      </trkpt>
      <trkpt lat="42.54048" lon="0.19254">
        <ele>741.7</ele>
        <time>2016-07-23T11:20:11Z</time>
      </trkpt>
      <trkpt lat="42.5405" lon="0.19249">
        <ele>742</ele>
        <time>2016-07-23T11:20:13Z</time>
      </trkpt>
      <trkpt lat="42.54052" lon="0.19245">
        <ele>742.2</ele>
        <time>2016-07-23T11:20:15Z</time>
      </trkpt>
      <trkpt lat="42.54055" lon="0.19241">
        <ele>741.7</ele>
        <time>2016-07-23T11:20:17Z</time>
      </trkpt>
      <trkpt lat="42.54059" lon="0.19238">
        <ele>740.8</ele>
        <time>2016-07-23T11:20:19Z</time>
      </trkpt>
      <trkpt lat="42.54064" lon="0.19235">
        <ele>739.6</ele>
        <time>2016-07-23T11:20:21Z</time>
      </trkpt>
      <trkpt lat="42.54068" lon="0.19232">
        <ele>739.1</ele>
        <time>2016-07-23T11:20:22Z</time>
      </trkpt>
      <trkpt lat="42.5407" lon="0.19229">
        <ele>738.6</ele>
        <time>2016-07-23T11:20:23Z</time>
      </trkpt>
      <trkpt lat="42.54074" lon="0.19225">
        <ele>738.1</ele>
        <time>2016-07-23T11:20:25Z</time>
      </trkpt>
      <trkpt lat="42.54076" lon="0.1922">
        <ele>738.6</ele>
        <time>2016-07-23T11:20:27Z</time>
      </trkpt>
      <trkpt lat="42.54077" lon="0.19217">
        <ele>739</ele>
        <time>2016-07-23T11:20:33Z</time>
      </trkpt>
      <trkpt lat="42.5408" lon="0.19218">
        <ele>737.6</ele>
        <time>2016-07-23T11:20:38Z</time>
      </trkpt>
      <trkpt lat="42.54082" lon="0.19219">
        <ele>736.2</ele>
        <time>2016-07-23T11:20:42Z</time>
      </trkpt>
      <trkpt lat="42.54086" lon="0.19219">
        <ele>734.7</ele>
        <time>2016-07-23T11:20:49Z</time>
      </trkpt>
      <trkpt lat="42.5409" lon="0.19218">
        <ele>733.8</ele>
        <time>2016-07-23T11:20:51Z</time>
      </trkpt>
      <trkpt lat="42.54094" lon="0.19215">
        <ele>732.7</ele>
        <time>2016-07-23T11:20:53Z</time>
      </trkpt>
      <trkpt lat="42.54097" lon="0.19213">
        <ele>732.1</ele>
        <time>2016-07-23T11:20:54Z</time>
      </trkpt>
      <trkpt lat="42.541" lon="0.19211">
        <ele>731.4</ele>
        <time>2016-07-23T11:20:55Z</time>
      </trkpt>
      <trkpt lat="42.54103" lon="0.19209">
        <ele>730.7</ele>
        <time>2016-07-23T11:20:56Z</time>
      </trkpt>
      <trkpt lat="42.54105" lon="0.19208">
        <ele>729.9</ele>
        <time>2016-07-23T11:20:57Z</time>
      </trkpt>
      <trkpt lat="42.54109" lon="0.19206">
        <ele>728.8</ele>
        <time>2016-07-23T11:20:58Z</time>
      </trkpt>
      <trkpt lat="42.54112" lon="0.19205">
        <ele>727.7</ele>
        <time>2016-07-23T11:20:59Z</time>
      </trkpt>
      <trkpt lat="42.54116" lon="0.19203">
        <ele>726.6</ele>
        <time>2016-07-23T11:21:00Z</time>
      </trkpt>
      <trkpt lat="42.54119" lon="0.19202">
        <ele>725.6</ele>
        <time>2016-07-23T11:21:01Z</time>
      </trkpt>
      <trkpt lat="42.54124" lon="0.19201">
        <ele>724</ele>
        <time>2016-07-23T11:21:03Z</time>
      </trkpt>
      <trkpt lat="42.54127" lon="0.192">
        <ele>723.5</ele>
        <time>2016-07-23T11:21:04Z</time>
      </trkpt>
      <trkpt lat="42.54131" lon="0.192">
        <ele>723.1</ele>
        <time>2016-07-23T11:21:05Z</time>
      </trkpt>
      <trkpt lat="42.54135" lon="0.19199">
        <ele>722.7</ele>
        <time>2016-07-23T11:21:06Z</time>
      </trkpt>
      <trkpt lat="42.54138" lon="0.19198">
        <ele>722.4</ele>
        <time>2016-07-23T11:21:07Z</time>
      </trkpt>
      <trkpt lat="42.54142" lon="0.19197">
        <ele>722.1</ele>
        <time>2016-07-23T11:21:08Z</time>
      </trkpt>
      <trkpt lat="42.54146" lon="0.19195">
        <ele>721.7</ele>
        <time>2016-07-23T11:21:09Z</time>
      </trkpt>
      <trkpt lat="42.54151" lon="0.19195">
        <ele>721.1</ele>
        <time>2016-07-23T11:21:10Z</time>
      </trkpt>
      <trkpt lat="42.54154" lon="0.19195">
        <ele>720.6</ele>
        <time>2016-07-23T11:21:11Z</time>
      </trkpt>
      <trkpt lat="42.54158" lon="0.19195">
        <ele>719.9</ele>
        <time>2016-07-23T11:21:12Z</time>
      </trkpt>
      <trkpt lat="42.54162" lon="0.19196">
        <ele>719.2</ele>
        <time>2016-07-23T11:21:13Z</time>
      </trkpt>
      <trkpt lat="42.54166" lon="0.19197">
        <ele>718.5</ele>
        <time>2016-07-23T11:21:14Z</time>
      </trkpt>
      <trkpt lat="42.5417" lon="0.19197">
        <ele>717.8</ele>
        <time>2016-07-23T11:21:15Z</time>
      </trkpt>
      <trkpt lat="42.54174" lon="0.19196">
        <ele>717.4</ele>
        <time>2016-07-23T11:21:16Z</time>
      </trkpt>
      <trkpt lat="42.54178" lon="0.19194">
        <ele>717</ele>
        <time>2016-07-23T11:21:17Z</time>
      </trkpt>
      <trkpt lat="42.54181" lon="0.19192">
        <ele>716.7</ele>
        <time>2016-07-23T11:21:18Z</time>
      </trkpt>
      <trkpt lat="42.54184" lon="0.19189">
        <ele>716.7</ele>
        <time>2016-07-23T11:21:19Z</time>
      </trkpt>
      <trkpt lat="42.54186" lon="0.19184">
        <ele>716.9</ele>
        <time>2016-07-23T11:21:20Z</time>
      </trkpt>
      <trkpt lat="42.54188" lon="0.19179">
        <ele>717.1</ele>
        <time>2016-07-23T11:21:21Z</time>
      </trkpt>
      <trkpt lat="42.5419" lon="0.19174">
        <ele>717.3</ele>
        <time>2016-07-23T11:21:22Z</time>
      </trkpt>
      <trkpt lat="42.54193" lon="0.19169">
        <ele>717.3</ele>
        <time>2016-07-23T11:21:23Z</time>
      </trkpt>
      <trkpt lat="42.54196" lon="0.19166">
        <ele>717.1</ele>
        <time>2016-07-23T11:21:24Z</time>
      </trkpt>
      <trkpt lat="42.54198" lon="0.19163">
        <ele>717</ele>
        <time>2016-07-23T11:21:25Z</time>
      </trkpt>
      <trkpt lat="42.542" lon="0.1916">
        <ele>716.9</ele>
        <time>2016-07-23T11:21:26Z</time>
      </trkpt>
      <trkpt lat="42.54203" lon="0.19155">
        <ele>716.7</ele>
        <time>2016-07-23T11:21:27Z</time>
      </trkpt>
      <trkpt lat="42.54205" lon="0.1915">
        <ele>716.7</ele>
        <time>2016-07-23T11:21:28Z</time>
      </trkpt>
      <trkpt lat="42.54206" lon="0.19143">
        <ele>717.1</ele>
        <time>2016-07-23T11:21:29Z</time>
      </trkpt>
      <trkpt lat="42.54207" lon="0.19136">
        <ele>717.5</ele>
        <time>2016-07-23T11:21:30Z</time>
      </trkpt>
      <trkpt lat="42.54207" lon="0.1913">
        <ele>717.9</ele>
        <time>2016-07-23T11:21:31Z</time>
      </trkpt>
      <trkpt lat="42.54207" lon="0.19124">
        <ele>718.4</ele>
        <time>2016-07-23T11:21:32Z</time>
      </trkpt>
      <trkpt lat="42.54207" lon="0.19119">
        <ele>718.5</ele>
        <time>2016-07-23T11:21:33Z</time>
      </trkpt>
      <trkpt lat="42.54208" lon="0.19114">
        <ele>718.6</ele>
        <time>2016-07-23T11:21:34Z</time>
      </trkpt>
      <trkpt lat="42.54208" lon="0.19108">
        <ele>718.8</ele>
        <time>2016-07-23T11:21:35Z</time>
      </trkpt>
      <trkpt lat="42.54208" lon="0.19102">
        <ele>719</ele>
        <time>2016-07-23T11:21:36Z</time>
      </trkpt>
      <trkpt lat="42.54207" lon="0.19097">
        <ele>719.4</ele>
        <time>2016-07-23T11:21:37Z</time>
      </trkpt>
      <trkpt lat="42.54206" lon="0.19092">
        <ele>719.8</ele>
        <time>2016-07-23T11:21:38Z</time>
      </trkpt>
      <trkpt lat="42.54205" lon="0.19087">
        <ele>720.3</ele>
        <time>2016-07-23T11:21:39Z</time>
      </trkpt>
      <trkpt lat="42.54204" lon="0.19082">
        <ele>720.9</ele>
        <time>2016-07-23T11:21:40Z</time>
      </trkpt>
      <trkpt lat="42.54203" lon="0.19078">
        <ele>721.4</ele>
        <time>2016-07-23T11:21:41Z</time>
      </trkpt>
      <trkpt lat="42.54202" lon="0.19075">
        <ele>721.9</ele>
        <time>2016-07-23T11:21:42Z</time>
      </trkpt>
      <trkpt lat="42.542" lon="0.19069">
        <ele>722.7</ele>
        <time>2016-07-23T11:21:44Z</time>
      </trkpt>
      <trkpt lat="42.54197" lon="0.19063">
        <ele>723.9</ele>
        <time>2016-07-23T11:21:46Z</time>
      </trkpt>
      <trkpt lat="42.54196" lon="0.1906">
        <ele>724.6</ele>
        <time>2016-07-23T11:21:47Z</time>
      </trkpt>
      <trkpt lat="42.54196" lon="0.19054">
        <ele>724.9</ele>
        <time>2016-07-23T11:21:48Z</time>
      </trkpt>
      <trkpt lat="42.54196" lon="0.19048">
        <ele>725</ele>
        <time>2016-07-23T11:21:49Z</time>
      </trkpt>
      <trkpt lat="42.54197" lon="0.19042">
        <ele>724.8</ele>
        <time>2016-07-23T11:21:50Z</time>
      </trkpt>
      <trkpt lat="42.542" lon="0.19036">
        <ele>723.9</ele>
        <time>2016-07-23T11:21:51Z</time>
      </trkpt>
      <trkpt lat="42.54202" lon="0.19031">
        <ele>723.2</ele>
        <time>2016-07-23T11:21:52Z</time>
      </trkpt>
      <trkpt lat="42.54204" lon="0.19025">
        <ele>722.6</ele>
        <time>2016-07-23T11:21:53Z</time>
      </trkpt>
      <trkpt lat="42.54204" lon="0.1902">
        <ele>722.3</ele>
        <time>2016-07-23T11:21:54Z</time>
      </trkpt>
      <trkpt lat="42.54205" lon="0.19014">
        <ele>722.2</ele>
        <time>2016-07-23T11:21:55Z</time>
      </trkpt>
      <trkpt lat="42.54204" lon="0.19009">
        <ele>722.4</ele>
        <time>2016-07-23T11:21:56Z</time>
      </trkpt>
      <trkpt lat="42.54202" lon="0.19003">
        <ele>722.9</ele>
        <time>2016-07-23T11:21:57Z</time>
      </trkpt>
      <trkpt lat="42.54201" lon="0.18998">
        <ele>723.4</ele>
        <time>2016-07-23T11:21:58Z</time>
      </trkpt>
      <trkpt lat="42.54199" lon="0.18992">
        <ele>724</ele>
        <time>2016-07-23T11:21:59Z</time>
      </trkpt>
      <trkpt lat="42.54197" lon="0.18987">
        <ele>724.4</ele>
        <time>2016-07-23T11:22:00Z</time>
      </trkpt>
      <trkpt lat="42.54196" lon="0.18983">
        <ele>724.7</ele>
        <time>2016-07-23T11:22:01Z</time>
      </trkpt>
      <trkpt lat="42.54196" lon="0.18979">
        <ele>724.6</ele>
        <time>2016-07-23T11:22:02Z</time>
      </trkpt>
      <trkpt lat="42.54197" lon="0.18974">
        <ele>724.5</ele>
        <time>2016-07-23T11:22:04Z</time>
      </trkpt>
      <trkpt lat="42.54199" lon="0.18968">
        <ele>723.7</ele>
        <time>2016-07-23T11:22:06Z</time>
      </trkpt>
      <trkpt lat="42.54202" lon="0.18964">
        <ele>722.9</ele>
        <time>2016-07-23T11:22:07Z</time>
      </trkpt>
      <trkpt lat="42.54204" lon="0.18959">
        <ele>722.2</ele>
        <time>2016-07-23T11:22:08Z</time>
      </trkpt>
      <trkpt lat="42.54206" lon="0.18955">
        <ele>721</ele>
        <time>2016-07-23T11:22:09Z</time>
      </trkpt>
      <trkpt lat="42.54207" lon="0.1895">
        <ele>719.9</ele>
        <time>2016-07-23T11:22:10Z</time>
      </trkpt>
      <trkpt lat="42.54208" lon="0.18944">
        <ele>719.1</ele>
        <time>2016-07-23T11:22:11Z</time>
      </trkpt>
      <trkpt lat="42.54207" lon="0.1894">
        <ele>718.4</ele>
        <time>2016-07-23T11:22:12Z</time>
      </trkpt>
      <trkpt lat="42.54206" lon="0.18935">
        <ele>718.1</ele>
        <time>2016-07-23T11:22:13Z</time>
      </trkpt>
      <trkpt lat="42.54204" lon="0.18932">
        <ele>718</ele>
        <time>2016-07-23T11:22:14Z</time>
      </trkpt>
      <trkpt lat="42.54202" lon="0.18928">
        <ele>717.9</ele>
        <time>2016-07-23T11:22:15Z</time>
      </trkpt>
      <trkpt lat="42.542" lon="0.18924">
        <ele>717.7</ele>
        <time>2016-07-23T11:22:16Z</time>
      </trkpt>
      <trkpt lat="42.54199" lon="0.18921">
        <ele>717.5</ele>
        <time>2016-07-23T11:22:17Z</time>
      </trkpt>
      <trkpt lat="42.54198" lon="0.18917">
        <ele>717.1</ele>
        <time>2016-07-23T11:22:18Z</time>
      </trkpt>
      <trkpt lat="42.54197" lon="0.18912">
        <ele>716.6</ele>
        <time>2016-07-23T11:22:19Z</time>
      </trkpt>
      <trkpt lat="42.54195" lon="0.18907">
        <ele>716.2</ele>
        <time>2016-07-23T11:22:20Z</time>
      </trkpt>
      <trkpt lat="42.54193" lon="0.18903">
        <ele>715.8</ele>
        <time>2016-07-23T11:22:21Z</time>
      </trkpt>
      <trkpt lat="42.54193" lon="0.18899">
        <ele>715.3</ele>
        <time>2016-07-23T11:22:22Z</time>
      </trkpt>
      <trkpt lat="42.54192" lon="0.18892">
        <ele>714.3</ele>
        <time>2016-07-23T11:22:24Z</time>
      </trkpt>
      <trkpt lat="42.54192" lon="0.18888">
        <ele>713.7</ele>
        <time>2016-07-23T11:22:25Z</time>
      </trkpt>
      <trkpt lat="42.54192" lon="0.18881">
        <ele>712.4</ele>
        <time>2016-07-23T11:22:27Z</time>
      </trkpt>
      <trkpt lat="42.54193" lon="0.18875">
        <ele>711.1</ele>
        <time>2016-07-23T11:22:29Z</time>
      </trkpt>
      <trkpt lat="42.54194" lon="0.1887">
        <ele>710.2</ele>
        <time>2016-07-23T11:22:31Z</time>
      </trkpt>
      <trkpt lat="42.54196" lon="0.18865">
        <ele>709.4</ele>
        <time>2016-07-23T11:22:32Z</time>
      </trkpt>
      <trkpt lat="42.54196" lon="0.1886">
        <ele>708.9</ele>
        <time>2016-07-23T11:22:33Z</time>
      </trkpt>
      <trkpt lat="42.54197" lon="0.18855">
        <ele>707.9</ele>
        <time>2016-07-23T11:22:34Z</time>
      </trkpt>
      <trkpt lat="42.54199" lon="0.18848">
        <ele>706.9</ele>
        <time>2016-07-23T11:22:35Z</time>
      </trkpt>
      <trkpt lat="42.54199" lon="0.18842">
        <ele>706.1</ele>
        <time>2016-07-23T11:22:36Z</time>
      </trkpt>
      <trkpt lat="42.542" lon="0.18835">
        <ele>705.3</ele>
        <time>2016-07-23T11:22:37Z</time>
      </trkpt>
      <trkpt lat="42.54199" lon="0.1883">
        <ele>704.7</ele>
        <time>2016-07-23T11:22:38Z</time>
      </trkpt>
      <trkpt lat="42.54199" lon="0.18825">
        <ele>704.3</ele>
        <time>2016-07-23T11:22:39Z</time>
      </trkpt>
      <trkpt lat="42.54198" lon="0.18821">
        <ele>704</ele>
        <time>2016-07-23T11:22:40Z</time>
      </trkpt>
      <trkpt lat="42.54196" lon="0.18817">
        <ele>703.9</ele>
        <time>2016-07-23T11:22:41Z</time>
      </trkpt>
      <trkpt lat="42.54194" lon="0.18813">
        <ele>703.8</ele>
        <time>2016-07-23T11:22:42Z</time>
      </trkpt>
      <trkpt lat="42.54191" lon="0.1881">
        <ele>703.8</ele>
        <time>2016-07-23T11:22:43Z</time>
      </trkpt>
      <trkpt lat="42.54189" lon="0.18806">
        <ele>703.8</ele>
        <time>2016-07-23T11:22:44Z</time>
      </trkpt>
      <trkpt lat="42.54187" lon="0.18802">
        <ele>703.5</ele>
        <time>2016-07-23T11:22:45Z</time>
      </trkpt>
      <trkpt lat="42.54187" lon="0.18797">
        <ele>702.9</ele>
        <time>2016-07-23T11:22:46Z</time>
      </trkpt>
      <trkpt lat="42.54187" lon="0.18792">
        <ele>702.3</ele>
        <time>2016-07-23T11:22:47Z</time>
      </trkpt>
      <trkpt lat="42.54187" lon="0.18788">
        <ele>702.8</ele>
        <time>2016-07-23T11:22:48Z</time>
      </trkpt>
      <trkpt lat="42.54187" lon="0.18784">
        <ele>703.3</ele>
        <time>2016-07-23T11:22:49Z</time>
      </trkpt>
      <trkpt lat="42.54187" lon="0.1878">
        <ele>703.7</ele>
        <time>2016-07-23T11:22:50Z</time>
      </trkpt>
      <trkpt lat="42.54187" lon="0.18776">
        <ele>704.1</ele>
        <time>2016-07-23T11:22:51Z</time>
      </trkpt>
      <trkpt lat="42.54188" lon="0.18772">
        <ele>704.5</ele>
        <time>2016-07-23T11:22:52Z</time>
      </trkpt>
      <trkpt lat="42.54188" lon="0.18767">
        <ele>705</ele>
        <time>2016-07-23T11:22:53Z</time>
      </trkpt>
      <trkpt lat="42.54188" lon="0.18761">
        <ele>705.7</ele>
        <time>2016-07-23T11:22:54Z</time>
      </trkpt>
      <trkpt lat="42.54188" lon="0.18756">
        <ele>706.4</ele>
        <time>2016-07-23T11:22:55Z</time>
      </trkpt>
      <trkpt lat="42.54187" lon="0.18751">
        <ele>707.3</ele>
        <time>2016-07-23T11:22:56Z</time>
      </trkpt>
      <trkpt lat="42.54186" lon="0.18745">
        <ele>708.2</ele>
        <time>2016-07-23T11:22:57Z</time>
      </trkpt>
      <trkpt lat="42.54185" lon="0.1874">
        <ele>708.9</ele>
        <time>2016-07-23T11:22:58Z</time>
      </trkpt>
      <trkpt lat="42.54185" lon="0.18736">
        <ele>709.5</ele>
        <time>2016-07-23T11:22:59Z</time>
      </trkpt>
      <trkpt lat="42.54183" lon="0.18731">
        <ele>710.7</ele>
        <time>2016-07-23T11:23:01Z</time>
      </trkpt>
      <trkpt lat="42.54179" lon="0.18728">
        <ele>712.2</ele>
        <time>2016-07-23T11:23:03Z</time>
      </trkpt>
      <trkpt lat="42.54176" lon="0.18725">
        <ele>713.7</ele>
        <time>2016-07-23T11:23:05Z</time>
      </trkpt>
      <trkpt lat="42.54176" lon="0.18721">
        <ele>714</ele>
        <time>2016-07-23T11:23:12Z</time>
      </trkpt>
      <trkpt lat="42.54177" lon="0.18717">
        <ele>714.2</ele>
        <time>2016-07-23T11:23:18Z</time>
      </trkpt>
      <trkpt lat="42.54179" lon="0.18713">
        <ele>714.2</ele>
        <time>2016-07-23T11:23:22Z</time>
      </trkpt>
      <trkpt lat="42.5418" lon="0.18708">
        <ele>714.4</ele>
        <time>2016-07-23T11:23:26Z</time>
      </trkpt>
      <trkpt lat="42.54182" lon="0.18706">
        <ele>714.1</ele>
        <time>2016-07-23T11:23:30Z</time>
      </trkpt>
      <trkpt lat="42.54182" lon="0.18702">
        <ele>714.2</ele>
        <time>2016-07-23T11:23:36Z</time>
      </trkpt>
      <trkpt lat="42.54182" lon="0.18698">
        <ele>714.5</ele>
        <time>2016-07-23T11:23:41Z</time>
      </trkpt>
      <trkpt lat="42.54183" lon="0.18694">
        <ele>714.7</ele>
        <time>2016-07-23T11:23:46Z</time>
      </trkpt>
      <trkpt lat="42.54186" lon="0.1869">
        <ele>713.7</ele>
        <time>2016-07-23T11:23:49Z</time>
      </trkpt>
      <trkpt lat="42.54189" lon="0.18687">
        <ele>712.6</ele>
        <time>2016-07-23T11:23:51Z</time>
      </trkpt>
      <trkpt lat="42.54193" lon="0.18683">
        <ele>711.5</ele>
        <time>2016-07-23T11:23:53Z</time>
      </trkpt>
      <trkpt lat="42.54196" lon="0.18677">
        <ele>710.3</ele>
        <time>2016-07-23T11:23:55Z</time>
      </trkpt>
      <trkpt lat="42.54197" lon="0.18674">
        <ele>709.8</ele>
        <time>2016-07-23T11:23:56Z</time>
      </trkpt>
      <trkpt lat="42.54198" lon="0.1867">
        <ele>709.5</ele>
        <time>2016-07-23T11:23:57Z</time>
      </trkpt>
      <trkpt lat="42.54199" lon="0.18665">
        <ele>709.4</ele>
        <time>2016-07-23T11:23:58Z</time>
      </trkpt>
      <trkpt lat="42.54199" lon="0.1866">
        <ele>709.6</ele>
        <time>2016-07-23T11:23:59Z</time>
      </trkpt>
      <trkpt lat="42.54198" lon="0.18654">
        <ele>710</ele>
        <time>2016-07-23T11:24:00Z</time>
      </trkpt>
      <trkpt lat="42.54197" lon="0.18648">
        <ele>710.8</ele>
        <time>2016-07-23T11:24:01Z</time>
      </trkpt>
      <trkpt lat="42.54196" lon="0.18642">
        <ele>711.7</ele>
        <time>2016-07-23T11:24:02Z</time>
      </trkpt>
      <trkpt lat="42.54194" lon="0.18635">
        <ele>712.9</ele>
        <time>2016-07-23T11:24:03Z</time>
      </trkpt>
      <trkpt lat="42.54192" lon="0.18628">
        <ele>714.5</ele>
        <time>2016-07-23T11:24:04Z</time>
      </trkpt>
      <trkpt lat="42.54189" lon="0.18621">
        <ele>716.8</ele>
        <time>2016-07-23T11:24:05Z</time>
      </trkpt>
      <trkpt lat="42.54186" lon="0.18615">
        <ele>719.3</ele>
        <time>2016-07-23T11:24:06Z</time>
      </trkpt>
      <trkpt lat="42.54184" lon="0.18608">
        <ele>721.6</ele>
        <time>2016-07-23T11:24:07Z</time>
      </trkpt>
      <trkpt lat="42.54182" lon="0.18602">
        <ele>723.7</ele>
        <time>2016-07-23T11:24:08Z</time>
      </trkpt>
      <trkpt lat="42.54181" lon="0.18596">
        <ele>725.3</ele>
        <time>2016-07-23T11:24:09Z</time>
      </trkpt>
      <trkpt lat="42.54181" lon="0.18591">
        <ele>726.3</ele>
        <time>2016-07-23T11:24:10Z</time>
      </trkpt>
      <trkpt lat="42.54181" lon="0.18586">
        <ele>727.2</ele>
        <time>2016-07-23T11:24:11Z</time>
      </trkpt>
      <trkpt lat="42.5418" lon="0.18581">
        <ele>728.4</ele>
        <time>2016-07-23T11:24:12Z</time>
      </trkpt>
      <trkpt lat="42.5418" lon="0.18575">
        <ele>729.6</ele>
        <time>2016-07-23T11:24:13Z</time>
      </trkpt>
      <trkpt lat="42.54179" lon="0.18569">
        <ele>730.9</ele>
        <time>2016-07-23T11:24:14Z</time>
      </trkpt>
      <trkpt lat="42.54179" lon="0.18562">
        <ele>732.2</ele>
        <time>2016-07-23T11:24:15Z</time>
      </trkpt>
      <trkpt lat="42.5418" lon="0.18554">
        <ele>732.8</ele>
        <time>2016-07-23T11:24:16Z</time>
      </trkpt>
      <trkpt lat="42.54181" lon="0.18546">
        <ele>733.2</ele>
        <time>2016-07-23T11:24:17Z</time>
      </trkpt>
      <trkpt lat="42.54183" lon="0.18538">
        <ele>733.5</ele>
        <time>2016-07-23T11:24:18Z</time>
      </trkpt>
      <trkpt lat="42.54185" lon="0.1853">
        <ele>733.5</ele>
        <time>2016-07-23T11:24:19Z</time>
      </trkpt>
      <trkpt lat="42.54188" lon="0.18521">
        <ele>733.1</ele>
        <time>2016-07-23T11:24:20Z</time>
      </trkpt>
      <trkpt lat="42.5419" lon="0.18513">
        <ele>732.6</ele>
        <time>2016-07-23T11:24:21Z</time>
      </trkpt>
      <trkpt lat="42.54193" lon="0.18505">
        <ele>732.3</ele>
        <time>2016-07-23T11:24:22Z</time>
      </trkpt>
      <trkpt lat="42.54196" lon="0.18497">
        <ele>732</ele>
        <time>2016-07-23T11:24:23Z</time>
      </trkpt>
      <trkpt lat="42.54198" lon="0.1849">
        <ele>731.9</ele>
        <time>2016-07-23T11:24:24Z</time>
      </trkpt>
      <trkpt lat="42.542" lon="0.18483">
        <ele>731.9</ele>
        <time>2016-07-23T11:24:25Z</time>
      </trkpt>
      <trkpt lat="42.54202" lon="0.18476">
        <ele>732.1</ele>
        <time>2016-07-23T11:24:26Z</time>
      </trkpt>
      <trkpt lat="42.54204" lon="0.18469">
        <ele>732.5</ele>
        <time>2016-07-23T11:24:27Z</time>
      </trkpt>
      <trkpt lat="42.54206" lon="0.18462">
        <ele>732.6</ele>
        <time>2016-07-23T11:24:28Z</time>
      </trkpt>
      <trkpt lat="42.54208" lon="0.18455">
        <ele>732.7</ele>
        <time>2016-07-23T11:24:29Z</time>
      </trkpt>
      <trkpt lat="42.54211" lon="0.18448">
        <ele>732.6</ele>
        <time>2016-07-23T11:24:30Z</time>
      </trkpt>
      <trkpt lat="42.54214" lon="0.18442">
        <ele>732.5</ele>
        <time>2016-07-23T11:24:31Z</time>
      </trkpt>
      <trkpt lat="42.54216" lon="0.18436">
        <ele>732.3</ele>
        <time>2016-07-23T11:24:32Z</time>
      </trkpt>
      <trkpt lat="42.54219" lon="0.18431">
        <ele>732</ele>
        <time>2016-07-23T11:24:33Z</time>
      </trkpt>
      <trkpt lat="42.54221" lon="0.18426">
        <ele>731.5</ele>
        <time>2016-07-23T11:24:34Z</time>
      </trkpt>
      <trkpt lat="42.54225" lon="0.18421">
        <ele>730.7</ele>
        <time>2016-07-23T11:24:35Z</time>
      </trkpt>
      <trkpt lat="42.54228" lon="0.18416">
        <ele>729.9</ele>
        <time>2016-07-23T11:24:36Z</time>
      </trkpt>
      <trkpt lat="42.54232" lon="0.18411">
        <ele>729.1</ele>
        <time>2016-07-23T11:24:37Z</time>
      </trkpt>
      <trkpt lat="42.54235" lon="0.18406">
        <ele>728.4</ele>
        <time>2016-07-23T11:24:38Z</time>
      </trkpt>
      <trkpt lat="42.54239" lon="0.184">
        <ele>727.6</ele>
        <time>2016-07-23T11:24:39Z</time>
      </trkpt>
      <trkpt lat="42.54242" lon="0.18395">
        <ele>726.9</ele>
        <time>2016-07-23T11:24:40Z</time>
      </trkpt>
      <trkpt lat="42.54245" lon="0.18389">
        <ele>726.2</ele>
        <time>2016-07-23T11:24:41Z</time>
      </trkpt>
      <trkpt lat="42.54249" lon="0.18383">
        <ele>725.6</ele>
        <time>2016-07-23T11:24:42Z</time>
      </trkpt>
      <trkpt lat="42.54252" lon="0.18377">
        <ele>725.1</ele>
        <time>2016-07-23T11:24:43Z</time>
      </trkpt>
      <trkpt lat="42.54255" lon="0.1837">
        <ele>725.7</ele>
        <time>2016-07-23T11:24:44Z</time>
      </trkpt>
      <trkpt lat="42.54257" lon="0.18364">
        <ele>726.6</ele>
        <time>2016-07-23T11:24:45Z</time>
      </trkpt>
      <trkpt lat="42.5426" lon="0.18358">
        <ele>727.5</ele>
        <time>2016-07-23T11:24:46Z</time>
      </trkpt>
      <trkpt lat="42.54262" lon="0.18352">
        <ele>728.4</ele>
        <time>2016-07-23T11:24:47Z</time>
      </trkpt>
      <trkpt lat="42.54264" lon="0.18346">
        <ele>729.6</ele>
        <time>2016-07-23T11:24:48Z</time>
      </trkpt>
      <trkpt lat="42.54265" lon="0.1834">
        <ele>730.9</ele>
        <time>2016-07-23T11:24:49Z</time>
      </trkpt>
      <trkpt lat="42.54267" lon="0.18334">
        <ele>732.1</ele>
        <time>2016-07-23T11:24:50Z</time>
      </trkpt>
      <trkpt lat="42.5427" lon="0.18328">
        <ele>733.1</ele>
        <time>2016-07-23T11:24:51Z</time>
      </trkpt>
      <trkpt lat="42.54272" lon="0.18323">
        <ele>733.9</ele>
        <time>2016-07-23T11:24:52Z</time>
      </trkpt>
      <trkpt lat="42.54274" lon="0.18318">
        <ele>734.8</ele>
        <time>2016-07-23T11:24:53Z</time>
      </trkpt>
      <trkpt lat="42.54276" lon="0.18313">
        <ele>735.7</ele>
        <time>2016-07-23T11:24:54Z</time>
      </trkpt>
      <trkpt lat="42.54279" lon="0.18308">
        <ele>736.6</ele>
        <time>2016-07-23T11:24:55Z</time>
      </trkpt>
      <trkpt lat="42.54281" lon="0.18304">
        <ele>737.5</ele>
        <time>2016-07-23T11:24:56Z</time>
      </trkpt>
      <trkpt lat="42.54283" lon="0.183">
        <ele>738.3</ele>
        <time>2016-07-23T11:24:57Z</time>
      </trkpt>
      <trkpt lat="42.54284" lon="0.18296">
        <ele>739.1</ele>
        <time>2016-07-23T11:24:58Z</time>
      </trkpt>
      <trkpt lat="42.54286" lon="0.18293">
        <ele>739.9</ele>
        <time>2016-07-23T11:24:59Z</time>
      </trkpt>
      <trkpt lat="42.54288" lon="0.18288">
        <ele>740.8</ele>
        <time>2016-07-23T11:25:01Z</time>
      </trkpt>
      <trkpt lat="42.5429" lon="0.18284">
        <ele>741.8</ele>
        <time>2016-07-23T11:25:03Z</time>
      </trkpt>
      <trkpt lat="42.54293" lon="0.1828">
        <ele>742</ele>
        <time>2016-07-23T11:25:05Z</time>
      </trkpt>
      <trkpt lat="42.54296" lon="0.18277">
        <ele>741.6</ele>
        <time>2016-07-23T11:25:07Z</time>
      </trkpt>
      <trkpt lat="42.54301" lon="0.18272">
        <ele>740.7</ele>
        <time>2016-07-23T11:25:09Z</time>
      </trkpt>
      <trkpt lat="42.54304" lon="0.1827">
        <ele>740.1</ele>
        <time>2016-07-23T11:25:10Z</time>
      </trkpt>
      <trkpt lat="42.54307" lon="0.18267">
        <ele>739.4</ele>
        <time>2016-07-23T11:25:11Z</time>
      </trkpt>
      <trkpt lat="42.5431" lon="0.18264">
        <ele>738.7</ele>
        <time>2016-07-23T11:25:12Z</time>
      </trkpt>
      <trkpt lat="42.54314" lon="0.1826">
        <ele>738</ele>
        <time>2016-07-23T11:25:13Z</time>
      </trkpt>
      <trkpt lat="42.54319" lon="0.18256">
        <ele>737.1</ele>
        <time>2016-07-23T11:25:14Z</time>
      </trkpt>
      <trkpt lat="42.54324" lon="0.18251">
        <ele>736.1</ele>
        <time>2016-07-23T11:25:15Z</time>
      </trkpt>
      <trkpt lat="42.54329" lon="0.18246">
        <ele>735.3</ele>
        <time>2016-07-23T11:25:16Z</time>
      </trkpt>
      <trkpt lat="42.54334" lon="0.1824">
        <ele>734.9</ele>
        <time>2016-07-23T11:25:17Z</time>
      </trkpt>
      <trkpt lat="42.54339" lon="0.18234">
        <ele>734.8</ele>
        <time>2016-07-23T11:25:18Z</time>
      </trkpt>
      <trkpt lat="42.54344" lon="0.18227">
        <ele>734.6</ele>
        <time>2016-07-23T11:25:19Z</time>
      </trkpt>
      <trkpt lat="42.54349" lon="0.18222">
        <ele>733.9</ele>
        <time>2016-07-23T11:25:20Z</time>
      </trkpt>
      <trkpt lat="42.54355" lon="0.18217">
        <ele>732.6</ele>
        <time>2016-07-23T11:25:21Z</time>
      </trkpt>
      <trkpt lat="42.54363" lon="0.18218">
        <ele>727.6</ele>
        <time>2016-07-23T11:25:22Z</time>
      </trkpt>
      <trkpt lat="42.54368" lon="0.18214">
        <ele>726.4</ele>
        <time>2016-07-23T11:25:23Z</time>
      </trkpt>
      <trkpt lat="42.54372" lon="0.18211">
        <ele>725.1</ele>
        <time>2016-07-23T11:25:24Z</time>
      </trkpt>
      <trkpt lat="42.54378" lon="0.18207">
        <ele>724</ele>
        <time>2016-07-23T11:25:25Z</time>
      </trkpt>
      <trkpt lat="42.54386" lon="0.18202">
        <ele>721.6</ele>
        <time>2016-07-23T11:25:26Z</time>
      </trkpt>
      <trkpt lat="42.54392" lon="0.18197">
        <ele>719.8</ele>
        <time>2016-07-23T11:25:27Z</time>
      </trkpt>
      <trkpt lat="42.54398" lon="0.18192">
        <ele>718.1</ele>
        <time>2016-07-23T11:25:28Z</time>
      </trkpt>
      <trkpt lat="42.54404" lon="0.18186">
        <ele>716.2</ele>
        <time>2016-07-23T11:25:29Z</time>
      </trkpt>
      <trkpt lat="42.54409" lon="0.18181">
        <ele>714.8</ele>
        <time>2016-07-23T11:25:30Z</time>
      </trkpt>
      <trkpt lat="42.54412" lon="0.18176">
        <ele>714.1</ele>
        <time>2016-07-23T11:25:31Z</time>
      </trkpt>
      <trkpt lat="42.54416" lon="0.18172">
        <ele>712.9</ele>
        <time>2016-07-23T11:25:32Z</time>
      </trkpt>
      <trkpt lat="42.54419" lon="0.18168">
        <ele>712.1</ele>
        <time>2016-07-23T11:25:33Z</time>
      </trkpt>
      <trkpt lat="42.54422" lon="0.18164">
        <ele>711.2</ele>
        <time>2016-07-23T11:25:34Z</time>
      </trkpt>
      <trkpt lat="42.54425" lon="0.18161">
        <ele>710.3</ele>
        <time>2016-07-23T11:25:35Z</time>
      </trkpt>
      <trkpt lat="42.54432" lon="0.18156">
        <ele>706.9</ele>
        <time>2016-07-23T11:25:37Z</time>
      </trkpt>
      <trkpt lat="42.54435" lon="0.18153">
        <ele>705.7</ele>
        <time>2016-07-23T11:25:38Z</time>
      </trkpt>
      <trkpt lat="42.54438" lon="0.1815">
        <ele>704.6</ele>
        <time>2016-07-23T11:25:39Z</time>
      </trkpt>
      <trkpt lat="42.5444" lon="0.18146">
        <ele>703.6</ele>
        <time>2016-07-23T11:25:40Z</time>
      </trkpt>
      <trkpt lat="42.54444" lon="0.18141">
        <ele>702.2</ele>
        <time>2016-07-23T11:25:41Z</time>
      </trkpt>
      <trkpt lat="42.54447" lon="0.18136">
        <ele>700.8</ele>
        <time>2016-07-23T11:25:42Z</time>
      </trkpt>
      <trkpt lat="42.54452" lon="0.1813">
        <ele>698.9</ele>
        <time>2016-07-23T11:25:43Z</time>
      </trkpt>
      <trkpt lat="42.54456" lon="0.18123">
        <ele>697</ele>
        <time>2016-07-23T11:25:44Z</time>
      </trkpt>
      <trkpt lat="42.5446" lon="0.18116">
        <ele>695.7</ele>
        <time>2016-07-23T11:25:45Z</time>
      </trkpt>
      <trkpt lat="42.54463" lon="0.18108">
        <ele>695.6</ele>
        <time>2016-07-23T11:25:46Z</time>
      </trkpt>
      <trkpt lat="42.54467" lon="0.18099">
        <ele>695.6</ele>
        <time>2016-07-23T11:25:47Z</time>
      </trkpt>
      <trkpt lat="42.54468" lon="0.18087">
        <ele>696.2</ele>
        <time>2016-07-23T11:25:48Z</time>
      </trkpt>
      <trkpt lat="42.54471" lon="0.18077">
        <ele>696.2</ele>
        <time>2016-07-23T11:25:49Z</time>
      </trkpt>
      <trkpt lat="42.54472" lon="0.18067">
        <ele>696.5</ele>
        <time>2016-07-23T11:25:50Z</time>
      </trkpt>
      <trkpt lat="42.54474" lon="0.18058">
        <ele>696.6</ele>
        <time>2016-07-23T11:25:51Z</time>
      </trkpt>
      <trkpt lat="42.54475" lon="0.18049">
        <ele>696.6</ele>
        <time>2016-07-23T11:25:52Z</time>
      </trkpt>
      <trkpt lat="42.54477" lon="0.18039">
        <ele>696.8</ele>
        <time>2016-07-23T11:25:53Z</time>
      </trkpt>
      <trkpt lat="42.54478" lon="0.18032">
        <ele>697.9</ele>
        <time>2016-07-23T11:25:54Z</time>
      </trkpt>
      <trkpt lat="42.54479" lon="0.18026">
        <ele>698.6</ele>
        <time>2016-07-23T11:25:55Z</time>
      </trkpt>
      <trkpt lat="42.5448" lon="0.18021">
        <ele>699</ele>
        <time>2016-07-23T11:25:56Z</time>
      </trkpt>
      <trkpt lat="42.54481" lon="0.18017">
        <ele>699.2</ele>
        <time>2016-07-23T11:25:57Z</time>
      </trkpt>
      <trkpt lat="42.5448" lon="0.18012">
        <ele>700.6</ele>
        <time>2016-07-23T11:25:59Z</time>
      </trkpt>
      <trkpt lat="42.54481" lon="0.18006">
        <ele>701.3</ele>
        <time>2016-07-23T11:26:01Z</time>
      </trkpt>
      <trkpt lat="42.54481" lon="0.17998">
        <ele>703</ele>
        <time>2016-07-23T11:26:03Z</time>
      </trkpt>
      <trkpt lat="42.54482" lon="0.17993">
        <ele>703.3</ele>
        <time>2016-07-23T11:26:05Z</time>
      </trkpt>
      <trkpt lat="42.54484" lon="0.17986">
        <ele>703.5</ele>
        <time>2016-07-23T11:26:07Z</time>
      </trkpt>
      <trkpt lat="42.54485" lon="0.17983">
        <ele>703.2</ele>
        <time>2016-07-23T11:26:09Z</time>
      </trkpt>
      <trkpt lat="42.54481" lon="0.1799">
        <ele>704.4</ele>
        <time>2016-07-23T11:26:31Z</time>
      </trkpt>
      <trkpt lat="42.5448" lon="0.17994">
        <ele>704</ele>
        <time>2016-07-23T11:26:35Z</time>
      </trkpt>
      <trkpt lat="42.5448" lon="0.17998">
        <ele>703.5</ele>
        <time>2016-07-23T11:26:39Z</time>
      </trkpt>
      <trkpt lat="42.5448" lon="0.18004">
        <ele>702.1</ele>
        <time>2016-07-23T11:26:47Z</time>
      </trkpt>
      <trkpt lat="42.54481" lon="0.18008">
        <ele>701.2</ele>
        <time>2016-07-23T11:26:50Z</time>
      </trkpt>
      <trkpt lat="42.5448" lon="0.18012">
        <ele>700.9</ele>
        <time>2016-07-23T11:26:54Z</time>
      </trkpt>
      <trkpt lat="42.5448" lon="0.18016">
        <ele>700.3</ele>
        <time>2016-07-23T11:26:58Z</time>
      </trkpt>
      <trkpt lat="42.5448" lon="0.1802">
        <ele>699.4</ele>
        <time>2016-07-23T11:27:00Z</time>
      </trkpt>
      <trkpt lat="42.54479" lon="0.18025">
        <ele>698.7</ele>
        <time>2016-07-23T11:27:02Z</time>
      </trkpt>
      <trkpt lat="42.54478" lon="0.18029">
        <ele>698.4</ele>
        <time>2016-07-23T11:27:04Z</time>
      </trkpt>
      <trkpt lat="42.54477" lon="0.18033">
        <ele>698</ele>
        <time>2016-07-23T11:27:07Z</time>
      </trkpt>
      <trkpt lat="42.54478" lon="0.18039">
        <ele>696.8</ele>
        <time>2016-07-23T11:27:15Z</time>
      </trkpt>
      <trkpt lat="42.54477" lon="0.18044">
        <ele>696.3</ele>
        <time>2016-07-23T11:27:17Z</time>
      </trkpt>
      <trkpt lat="42.54476" lon="0.1805">
        <ele>696.2</ele>
        <time>2016-07-23T11:27:19Z</time>
      </trkpt>
      <trkpt lat="42.54475" lon="0.18058">
        <ele>696.3</ele>
        <time>2016-07-23T11:27:21Z</time>
      </trkpt>
      <trkpt lat="42.54474" lon="0.18062">
        <ele>696.3</ele>
        <time>2016-07-23T11:27:22Z</time>
      </trkpt>
      <trkpt lat="42.54473" lon="0.18066">
        <ele>696.3</ele>
        <time>2016-07-23T11:27:23Z</time>
      </trkpt>
      <trkpt lat="42.54472" lon="0.1807">
        <ele>696.2</ele>
        <time>2016-07-23T11:27:24Z</time>
      </trkpt>
      <trkpt lat="42.54472" lon="0.18075">
        <ele>696.2</ele>
        <time>2016-07-23T11:27:25Z</time>
      </trkpt>
      <trkpt lat="42.54471" lon="0.18079">
        <ele>696.2</ele>
        <time>2016-07-23T11:27:26Z</time>
      </trkpt>
      <trkpt lat="42.5447" lon="0.18083">
        <ele>696.2</ele>
        <time>2016-07-23T11:27:27Z</time>
      </trkpt>
      <trkpt lat="42.54468" lon="0.18086">
        <ele>696.3</ele>
        <time>2016-07-23T11:27:28Z</time>
      </trkpt>
      <trkpt lat="42.54467" lon="0.1809">
        <ele>696.3</ele>
        <time>2016-07-23T11:27:29Z</time>
      </trkpt>
      <trkpt lat="42.54465" lon="0.18096">
        <ele>696.3</ele>
        <time>2016-07-23T11:27:31Z</time>
      </trkpt>
      <trkpt lat="42.54464" lon="0.18102">
        <ele>696</ele>
        <time>2016-07-23T11:27:33Z</time>
      </trkpt>
      <trkpt lat="42.54462" lon="0.18108">
        <ele>695.9</ele>
        <time>2016-07-23T11:27:35Z</time>
      </trkpt>
      <trkpt lat="42.5446" lon="0.18113">
        <ele>696</ele>
        <time>2016-07-23T11:27:37Z</time>
      </trkpt>
      <trkpt lat="42.54457" lon="0.18118">
        <ele>696.6</ele>
        <time>2016-07-23T11:27:39Z</time>
      </trkpt>
      <trkpt lat="42.54454" lon="0.18122">
        <ele>698.2</ele>
        <time>2016-07-23T11:27:41Z</time>
      </trkpt>
      <trkpt lat="42.54452" lon="0.18127">
        <ele>699.4</ele>
        <time>2016-07-23T11:27:43Z</time>
      </trkpt>
      <trkpt lat="42.54449" lon="0.18132">
        <ele>700.7</ele>
        <time>2016-07-23T11:27:45Z</time>
      </trkpt>
      <trkpt lat="42.54446" lon="0.18136">
        <ele>702.1</ele>
        <time>2016-07-23T11:27:47Z</time>
      </trkpt>
      <trkpt lat="42.54443" lon="0.1814">
        <ele>703.3</ele>
        <time>2016-07-23T11:27:49Z</time>
      </trkpt>
      <trkpt lat="42.54439" lon="0.18143">
        <ele>704.9</ele>
        <time>2016-07-23T11:27:51Z</time>
      </trkpt>
      <trkpt lat="42.54437" lon="0.18146">
        <ele>706</ele>
        <time>2016-07-23T11:27:53Z</time>
      </trkpt>
      <trkpt lat="42.54434" lon="0.1815">
        <ele>706.9</ele>
        <time>2016-07-23T11:27:55Z</time>
      </trkpt>
      <trkpt lat="42.54431" lon="0.18154">
        <ele>708.2</ele>
        <time>2016-07-23T11:27:57Z</time>
      </trkpt>
      <trkpt lat="42.54428" lon="0.18156">
        <ele>709.6</ele>
        <time>2016-07-23T11:27:59Z</time>
      </trkpt>
      <trkpt lat="42.54425" lon="0.18156">
        <ele>711.5</ele>
        <time>2016-07-23T11:28:02Z</time>
      </trkpt>
      <trkpt lat="42.54422" lon="0.18158">
        <ele>712.5</ele>
        <time>2016-07-23T11:28:04Z</time>
      </trkpt>
      <trkpt lat="42.54421" lon="0.18162">
        <ele>712.5</ele>
        <time>2016-07-23T11:28:06Z</time>
      </trkpt>
      <trkpt lat="42.5442" lon="0.18166">
        <ele>712.3</ele>
        <time>2016-07-23T11:28:08Z</time>
      </trkpt>
      <trkpt lat="42.54418" lon="0.1817">
        <ele>712.4</ele>
        <time>2016-07-23T11:28:11Z</time>
      </trkpt>
      <trkpt lat="42.54415" lon="0.18168">
        <ele>714.9</ele>
        <time>2016-07-23T11:28:14Z</time>
      </trkpt>
      <trkpt lat="42.54413" lon="0.18162">
        <ele>717.3</ele>
        <time>2016-07-23T11:28:16Z</time>
      </trkpt>
      <trkpt lat="42.54413" lon="0.18157">
        <ele>719.2</ele>
        <time>2016-07-23T11:28:18Z</time>
      </trkpt>
      <trkpt lat="42.54413" lon="0.18152">
        <ele>720.5</ele>
        <time>2016-07-23T11:28:20Z</time>
      </trkpt>
      <trkpt lat="42.54414" lon="0.18146">
        <ele>721.4</ele>
        <time>2016-07-23T11:28:22Z</time>
      </trkpt>
      <trkpt lat="42.54415" lon="0.1814">
        <ele>721.9</ele>
        <time>2016-07-23T11:28:24Z</time>
      </trkpt>
      <trkpt lat="42.54417" lon="0.18135">
        <ele>722</ele>
        <time>2016-07-23T11:28:26Z</time>
      </trkpt>
      <trkpt lat="42.5442" lon="0.18128">
        <ele>722</ele>
        <time>2016-07-23T11:28:28Z</time>
      </trkpt>
      <trkpt lat="42.54421" lon="0.18121">
        <ele>722.5</ele>
        <time>2016-07-23T11:28:30Z</time>
      </trkpt>
      <trkpt lat="42.54421" lon="0.18117">
        <ele>723</ele>
        <time>2016-07-23T11:28:31Z</time>
      </trkpt>
      <trkpt lat="42.54421" lon="0.18113">
        <ele>723.7</ele>
        <time>2016-07-23T11:28:32Z</time>
      </trkpt>
      <trkpt lat="42.54421" lon="0.18108">
        <ele>724.3</ele>
        <time>2016-07-23T11:28:33Z</time>
      </trkpt>
      <trkpt lat="42.54421" lon="0.18104">
        <ele>724.8</ele>
        <time>2016-07-23T11:28:34Z</time>
      </trkpt>
      <trkpt lat="42.54421" lon="0.181">
        <ele>724.9</ele>
        <time>2016-07-23T11:28:35Z</time>
      </trkpt>
      <trkpt lat="42.54422" lon="0.18095">
        <ele>725.3</ele>
        <time>2016-07-23T11:28:36Z</time>
      </trkpt>
      <trkpt lat="42.54422" lon="0.1809">
        <ele>725.6</ele>
        <time>2016-07-23T11:28:37Z</time>
      </trkpt>
      <trkpt lat="42.54423" lon="0.18085">
        <ele>726.2</ele>
        <time>2016-07-23T11:28:38Z</time>
      </trkpt>
      <trkpt lat="42.54423" lon="0.18079">
        <ele>726.6</ele>
        <time>2016-07-23T11:28:39Z</time>
      </trkpt>
      <trkpt lat="42.54423" lon="0.18075">
        <ele>727</ele>
        <time>2016-07-23T11:28:40Z</time>
      </trkpt>
      <trkpt lat="42.54424" lon="0.1807">
        <ele>727.3</ele>
        <time>2016-07-23T11:28:41Z</time>
      </trkpt>
      <trkpt lat="42.54424" lon="0.18066">
        <ele>727.7</ele>
        <time>2016-07-23T11:28:42Z</time>
      </trkpt>
      <trkpt lat="42.54424" lon="0.18063">
        <ele>728</ele>
        <time>2016-07-23T11:28:43Z</time>
      </trkpt>
      <trkpt lat="42.54425" lon="0.18056">
        <ele>728.5</ele>
        <time>2016-07-23T11:28:45Z</time>
      </trkpt>
      <trkpt lat="42.54426" lon="0.18052">
        <ele>728.3</ele>
        <time>2016-07-23T11:28:46Z</time>
      </trkpt>
      <trkpt lat="42.54427" lon="0.18047">
        <ele>727.7</ele>
        <time>2016-07-23T11:28:47Z</time>
      </trkpt>
      <trkpt lat="42.5443" lon="0.18042">
        <ele>726.4</ele>
        <time>2016-07-23T11:28:48Z</time>
      </trkpt>
      <trkpt lat="42.54432" lon="0.18036">
        <ele>725.6</ele>
        <time>2016-07-23T11:28:49Z</time>
      </trkpt>
      <trkpt lat="42.54434" lon="0.1803">
        <ele>725.3</ele>
        <time>2016-07-23T11:28:50Z</time>
      </trkpt>
      <trkpt lat="42.54436" lon="0.18025">
        <ele>725.1</ele>
        <time>2016-07-23T11:28:51Z</time>
      </trkpt>
      <trkpt lat="42.54438" lon="0.1802">
        <ele>724.7</ele>
        <time>2016-07-23T11:28:52Z</time>
      </trkpt>
      <trkpt lat="42.54441" lon="0.18014">
        <ele>724.1</ele>
        <time>2016-07-23T11:28:53Z</time>
      </trkpt>
      <trkpt lat="42.54443" lon="0.18006">
        <ele>724.3</ele>
        <time>2016-07-23T11:28:54Z</time>
      </trkpt>
      <trkpt lat="42.54445" lon="0.17998">
        <ele>725</ele>
        <time>2016-07-23T11:28:55Z</time>
      </trkpt>
      <trkpt lat="42.54447" lon="0.17991">
        <ele>725.6</ele>
        <time>2016-07-23T11:28:56Z</time>
      </trkpt>
      <trkpt lat="42.54448" lon="0.17984">
        <ele>726.1</ele>
        <time>2016-07-23T11:28:57Z</time>
      </trkpt>
      <trkpt lat="42.54449" lon="0.1798">
        <ele>726.9</ele>
        <time>2016-07-23T11:28:58Z</time>
      </trkpt>
      <trkpt lat="42.54448" lon="0.17971">
        <ele>729.3</ele>
        <time>2016-07-23T11:29:01Z</time>
      </trkpt>
      <trkpt lat="42.54449" lon="0.17968">
        <ele>729.7</ele>
        <time>2016-07-23T11:29:07Z</time>
      </trkpt>
      <trkpt lat="42.5445" lon="0.17964">
        <ele>729.7</ele>
        <time>2016-07-23T11:29:11Z</time>
      </trkpt>
      <trkpt lat="42.54452" lon="0.1796">
        <ele>729.6</ele>
        <time>2016-07-23T11:29:14Z</time>
      </trkpt>
      <trkpt lat="42.54454" lon="0.17956">
        <ele>729.3</ele>
        <time>2016-07-23T11:29:16Z</time>
      </trkpt>
      <trkpt lat="42.54456" lon="0.17951">
        <ele>729.3</ele>
        <time>2016-07-23T11:29:18Z</time>
      </trkpt>
      <trkpt lat="42.54459" lon="0.17945">
        <ele>729.9</ele>
        <time>2016-07-23T11:29:20Z</time>
      </trkpt>
      <trkpt lat="42.5446" lon="0.17941">
        <ele>730.3</ele>
        <time>2016-07-23T11:29:21Z</time>
      </trkpt>
      <trkpt lat="42.54461" lon="0.17936">
        <ele>730.9</ele>
        <time>2016-07-23T11:29:22Z</time>
      </trkpt>
      <trkpt lat="42.54462" lon="0.17931">
        <ele>731.4</ele>
        <time>2016-07-23T11:29:23Z</time>
      </trkpt>
      <trkpt lat="42.54463" lon="0.17926">
        <ele>732</ele>
        <time>2016-07-23T11:29:24Z</time>
      </trkpt>
      <trkpt lat="42.54464" lon="0.1792">
        <ele>732.7</ele>
        <time>2016-07-23T11:29:25Z</time>
      </trkpt>
      <trkpt lat="42.54466" lon="0.17914">
        <ele>733.4</ele>
        <time>2016-07-23T11:29:26Z</time>
      </trkpt>
      <trkpt lat="42.54467" lon="0.17909">
        <ele>734.1</ele>
        <time>2016-07-23T11:29:27Z</time>
      </trkpt>
      <trkpt lat="42.54468" lon="0.17905">
        <ele>734.6</ele>
        <time>2016-07-23T11:29:28Z</time>
      </trkpt>
      <trkpt lat="42.54469" lon="0.179">
        <ele>734.7</ele>
        <time>2016-07-23T11:29:29Z</time>
      </trkpt>
      <trkpt lat="42.5447" lon="0.17896">
        <ele>734.9</ele>
        <time>2016-07-23T11:29:30Z</time>
      </trkpt>
      <trkpt lat="42.54472" lon="0.17893">
        <ele>734.9</ele>
        <time>2016-07-23T11:29:31Z</time>
      </trkpt>
      <trkpt lat="42.54473" lon="0.17888">
        <ele>734.8</ele>
        <time>2016-07-23T11:29:32Z</time>
      </trkpt>
      <trkpt lat="42.54475" lon="0.17884">
        <ele>734.7</ele>
        <time>2016-07-23T11:29:33Z</time>
      </trkpt>
      <trkpt lat="42.54477" lon="0.17879">
        <ele>734.7</ele>
        <time>2016-07-23T11:29:34Z</time>
      </trkpt>
      <trkpt lat="42.5448" lon="0.17874">
        <ele>733.8</ele>
        <time>2016-07-23T11:29:35Z</time>
      </trkpt>
      <trkpt lat="42.54483" lon="0.17868">
        <ele>731.8</ele>
        <time>2016-07-23T11:29:36Z</time>
      </trkpt>
      <trkpt lat="42.54486" lon="0.17863">
        <ele>729.6</ele>
        <time>2016-07-23T11:29:37Z</time>
      </trkpt>
      <trkpt lat="42.54489" lon="0.17858">
        <ele>727.8</ele>
        <time>2016-07-23T11:29:38Z</time>
      </trkpt>
      <trkpt lat="42.5449" lon="0.17855">
        <ele>726.8</ele>
        <time>2016-07-23T11:29:39Z</time>
      </trkpt>
      <trkpt lat="42.54492" lon="0.17852">
        <ele>725.8</ele>
        <time>2016-07-23T11:29:40Z</time>
      </trkpt>
      <trkpt lat="42.54494" lon="0.17847">
        <ele>724.9</ele>
        <time>2016-07-23T11:29:42Z</time>
      </trkpt>
      <trkpt lat="42.54496" lon="0.17841">
        <ele>723.5</ele>
        <time>2016-07-23T11:29:44Z</time>
      </trkpt>
      <trkpt lat="42.54498" lon="0.17838">
        <ele>722.2</ele>
        <time>2016-07-23T11:29:45Z</time>
      </trkpt>
      <trkpt lat="42.545" lon="0.17835">
        <ele>720.7</ele>
        <time>2016-07-23T11:29:46Z</time>
      </trkpt>
      <trkpt lat="42.54504" lon="0.17831">
        <ele>718.6</ele>
        <time>2016-07-23T11:29:47Z</time>
      </trkpt>
      <trkpt lat="42.54506" lon="0.17826">
        <ele>716.9</ele>
        <time>2016-07-23T11:29:48Z</time>
      </trkpt>
      <trkpt lat="42.54509" lon="0.1782">
        <ele>715.4</ele>
        <time>2016-07-23T11:29:49Z</time>
      </trkpt>
      <trkpt lat="42.54511" lon="0.17814">
        <ele>714.1</ele>
        <time>2016-07-23T11:29:50Z</time>
      </trkpt>
      <trkpt lat="42.54513" lon="0.17808">
        <ele>713.1</ele>
        <time>2016-07-23T11:29:51Z</time>
      </trkpt>
      <trkpt lat="42.54515" lon="0.17802">
        <ele>712.7</ele>
        <time>2016-07-23T11:29:52Z</time>
      </trkpt>
      <trkpt lat="42.54516" lon="0.17796">
        <ele>712.3</ele>
        <time>2016-07-23T11:29:53Z</time>
      </trkpt>
      <trkpt lat="42.54517" lon="0.1779">
        <ele>712.1</ele>
        <time>2016-07-23T11:29:54Z</time>
      </trkpt>
      <trkpt lat="42.54517" lon="0.17785">
        <ele>712</ele>
        <time>2016-07-23T11:29:55Z</time>
      </trkpt>
      <trkpt lat="42.54517" lon="0.1778">
        <ele>712.1</ele>
        <time>2016-07-23T11:29:56Z</time>
      </trkpt>
      <trkpt lat="42.54516" lon="0.17776">
        <ele>712.5</ele>
        <time>2016-07-23T11:29:57Z</time>
      </trkpt>
      <trkpt lat="42.54516" lon="0.17771">
        <ele>712.7</ele>
        <time>2016-07-23T11:29:58Z</time>
      </trkpt>
      <trkpt lat="42.54516" lon="0.17767">
        <ele>712.8</ele>
        <time>2016-07-23T11:29:59Z</time>
      </trkpt>
      <trkpt lat="42.54516" lon="0.17763">
        <ele>712.9</ele>
        <time>2016-07-23T11:30:00Z</time>
      </trkpt>
      <trkpt lat="42.54516" lon="0.17759">
        <ele>712.9</ele>
        <time>2016-07-23T11:30:01Z</time>
      </trkpt>
      <trkpt lat="42.54516" lon="0.17755">
        <ele>713</ele>
        <time>2016-07-23T11:30:02Z</time>
      </trkpt>
      <trkpt lat="42.54516" lon="0.17751">
        <ele>713.2</ele>
        <time>2016-07-23T11:30:03Z</time>
      </trkpt>
      <trkpt lat="42.54515" lon="0.17746">
        <ele>713.7</ele>
        <time>2016-07-23T11:30:05Z</time>
      </trkpt>
      <trkpt lat="42.54515" lon="0.17741">
        <ele>714.2</ele>
        <time>2016-07-23T11:30:07Z</time>
      </trkpt>
      <trkpt lat="42.54515" lon="0.17735">
        <ele>714.1</ele>
        <time>2016-07-23T11:30:09Z</time>
      </trkpt>
      <trkpt lat="42.54515" lon="0.17729">
        <ele>714.3</ele>
        <time>2016-07-23T11:30:11Z</time>
      </trkpt>
      <trkpt lat="42.54515" lon="0.17721">
        <ele>714.2</ele>
        <time>2016-07-23T11:30:13Z</time>
      </trkpt>
      <trkpt lat="42.54516" lon="0.17715">
        <ele>713.8</ele>
        <time>2016-07-23T11:30:14Z</time>
      </trkpt>
      <trkpt lat="42.54517" lon="0.17707">
        <ele>713.3</ele>
        <time>2016-07-23T11:30:15Z</time>
      </trkpt>
      <trkpt lat="42.54518" lon="0.17699">
        <ele>712.7</ele>
        <time>2016-07-23T11:30:16Z</time>
      </trkpt>
      <trkpt lat="42.54519" lon="0.17692">
        <ele>712.1</ele>
        <time>2016-07-23T11:30:17Z</time>
      </trkpt>
      <trkpt lat="42.5452" lon="0.17686">
        <ele>711.5</ele>
        <time>2016-07-23T11:30:18Z</time>
      </trkpt>
      <trkpt lat="42.54521" lon="0.17681">
        <ele>710.9</ele>
        <time>2016-07-23T11:30:19Z</time>
      </trkpt>
      <trkpt lat="42.54522" lon="0.17675">
        <ele>710</ele>
        <time>2016-07-23T11:30:20Z</time>
      </trkpt>
      <trkpt lat="42.54524" lon="0.17669">
        <ele>708.9</ele>
        <time>2016-07-23T11:30:21Z</time>
      </trkpt>
      <trkpt lat="42.54525" lon="0.17663">
        <ele>708.1</ele>
        <time>2016-07-23T11:30:22Z</time>
      </trkpt>
      <trkpt lat="42.54526" lon="0.17656">
        <ele>707.7</ele>
        <time>2016-07-23T11:30:23Z</time>
      </trkpt>
      <trkpt lat="42.54526" lon="0.1765">
        <ele>707.8</ele>
        <time>2016-07-23T11:30:24Z</time>
      </trkpt>
      <trkpt lat="42.54526" lon="0.17644">
        <ele>707.4</ele>
        <time>2016-07-23T11:30:25Z</time>
      </trkpt>
      <trkpt lat="42.54527" lon="0.17639">
        <ele>707</ele>
        <time>2016-07-23T11:30:26Z</time>
      </trkpt>
      <trkpt lat="42.54528" lon="0.17634">
        <ele>706.5</ele>
        <time>2016-07-23T11:30:27Z</time>
      </trkpt>
      <trkpt lat="42.54529" lon="0.17629">
        <ele>705.7</ele>
        <time>2016-07-23T11:30:28Z</time>
      </trkpt>
      <trkpt lat="42.5453" lon="0.17624">
        <ele>705.1</ele>
        <time>2016-07-23T11:30:29Z</time>
      </trkpt>
      <trkpt lat="42.54531" lon="0.17619">
        <ele>705</ele>
        <time>2016-07-23T11:30:30Z</time>
      </trkpt>
      <trkpt lat="42.5453" lon="0.17614">
        <ele>705.8</ele>
        <time>2016-07-23T11:30:32Z</time>
      </trkpt>
      <trkpt lat="42.54528" lon="0.1761">
        <ele>707.2</ele>
        <time>2016-07-23T11:30:34Z</time>
      </trkpt>
      <trkpt lat="42.54525" lon="0.17607">
        <ele>709</ele>
        <time>2016-07-23T11:30:36Z</time>
      </trkpt>
      <trkpt lat="42.54522" lon="0.17609">
        <ele>710.3</ele>
        <time>2016-07-23T11:30:40Z</time>
      </trkpt>
      <trkpt lat="42.54519" lon="0.17608">
        <ele>712.1</ele>
        <time>2016-07-23T11:30:46Z</time>
      </trkpt>
      <trkpt lat="42.54521" lon="0.17606">
        <ele>711</ele>
        <time>2016-07-23T11:30:52Z</time>
      </trkpt>
      <trkpt lat="42.54523" lon="0.17602">
        <ele>710.1</ele>
        <time>2016-07-23T11:30:56Z</time>
      </trkpt>
      <trkpt lat="42.54526" lon="0.17594">
        <ele>709</ele>
        <time>2016-07-23T11:30:58Z</time>
      </trkpt>
      <trkpt lat="42.54527" lon="0.1759">
        <ele>708.5</ele>
        <time>2016-07-23T11:30:59Z</time>
      </trkpt>
      <trkpt lat="42.54529" lon="0.17585">
        <ele>707.9</ele>
        <time>2016-07-23T11:31:00Z</time>
      </trkpt>
      <trkpt lat="42.5453" lon="0.1758">
        <ele>707.3</ele>
        <time>2016-07-23T11:31:01Z</time>
      </trkpt>
      <trkpt lat="42.54531" lon="0.17574">
        <ele>706.8</ele>
        <time>2016-07-23T11:31:02Z</time>
      </trkpt>
      <trkpt lat="42.54532" lon="0.17569">
        <ele>706.6</ele>
        <time>2016-07-23T11:31:03Z</time>
      </trkpt>
      <trkpt lat="42.54533" lon="0.17563">
        <ele>706.6</ele>
        <time>2016-07-23T11:31:04Z</time>
      </trkpt>
      <trkpt lat="42.54533" lon="0.17558">
        <ele>706.7</ele>
        <time>2016-07-23T11:31:05Z</time>
      </trkpt>
      <trkpt lat="42.54532" lon="0.17553">
        <ele>707.1</ele>
        <time>2016-07-23T11:31:06Z</time>
      </trkpt>
      <trkpt lat="42.54532" lon="0.17548">
        <ele>707.6</ele>
        <time>2016-07-23T11:31:07Z</time>
      </trkpt>
      <trkpt lat="42.54531" lon="0.17544">
        <ele>708.3</ele>
        <time>2016-07-23T11:31:08Z</time>
      </trkpt>
      <trkpt lat="42.54529" lon="0.17537">
        <ele>709.9</ele>
        <time>2016-07-23T11:31:10Z</time>
      </trkpt>
      <trkpt lat="42.54528" lon="0.17533">
        <ele>711.1</ele>
        <time>2016-07-23T11:31:12Z</time>
      </trkpt>
      <trkpt lat="42.54528" lon="0.17529">
        <ele>711.7</ele>
        <time>2016-07-23T11:31:15Z</time>
      </trkpt>
      <trkpt lat="42.54529" lon="0.17524">
        <ele>711.6</ele>
        <time>2016-07-23T11:31:17Z</time>
      </trkpt>
      <trkpt lat="42.54529" lon="0.17517">
        <ele>712.2</ele>
        <time>2016-07-23T11:31:19Z</time>
      </trkpt>
      <trkpt lat="42.54528" lon="0.17511">
        <ele>713.2</ele>
        <time>2016-07-23T11:31:21Z</time>
      </trkpt>
      <trkpt lat="42.54529" lon="0.17505">
        <ele>713.7</ele>
        <time>2016-07-23T11:31:23Z</time>
      </trkpt>
      <trkpt lat="42.54528" lon="0.17498">
        <ele>714.7</ele>
        <time>2016-07-23T11:31:25Z</time>
      </trkpt>
      <trkpt lat="42.54527" lon="0.17492">
        <ele>716</ele>
        <time>2016-07-23T11:31:27Z</time>
      </trkpt>
      <trkpt lat="42.54526" lon="0.17487">
        <ele>717.1</ele>
        <time>2016-07-23T11:31:29Z</time>
      </trkpt>
      <trkpt lat="42.54526" lon="0.1748">
        <ele>717.6</ele>
        <time>2016-07-23T11:31:31Z</time>
      </trkpt>
      <trkpt lat="42.54527" lon="0.17476">
        <ele>717.6</ele>
        <time>2016-07-23T11:31:32Z</time>
      </trkpt>
      <trkpt lat="42.54528" lon="0.17471">
        <ele>717.6</ele>
        <time>2016-07-23T11:31:33Z</time>
      </trkpt>
      <trkpt lat="42.54528" lon="0.17467">
        <ele>717.9</ele>
        <time>2016-07-23T11:31:34Z</time>
      </trkpt>
      <trkpt lat="42.54528" lon="0.17462">
        <ele>718.6</ele>
        <time>2016-07-23T11:31:35Z</time>
      </trkpt>
      <trkpt lat="42.54527" lon="0.17458">
        <ele>719.7</ele>
        <time>2016-07-23T11:31:36Z</time>
      </trkpt>
      <trkpt lat="42.54526" lon="0.17454">
        <ele>721</ele>
        <time>2016-07-23T11:31:37Z</time>
      </trkpt>
      <trkpt lat="42.54524" lon="0.17447">
        <ele>723.4</ele>
        <time>2016-07-23T11:31:39Z</time>
      </trkpt>
      <trkpt lat="42.54524" lon="0.17443">
        <ele>724.4</ele>
        <time>2016-07-23T11:31:40Z</time>
      </trkpt>
      <trkpt lat="42.54524" lon="0.1744">
        <ele>724.9</ele>
        <time>2016-07-23T11:31:41Z</time>
      </trkpt>
      <trkpt lat="42.54525" lon="0.17433">
        <ele>725.6</ele>
        <time>2016-07-23T11:31:43Z</time>
      </trkpt>
      <trkpt lat="42.54525" lon="0.17427">
        <ele>726.1</ele>
        <time>2016-07-23T11:31:45Z</time>
      </trkpt>
      <trkpt lat="42.54525" lon="0.17422">
        <ele>727</ele>
        <time>2016-07-23T11:31:47Z</time>
      </trkpt>
      <trkpt lat="42.54524" lon="0.17418">
        <ele>728.5</ele>
        <time>2016-07-23T11:31:50Z</time>
      </trkpt>
      <trkpt lat="42.54525" lon="0.17414">
        <ele>728.9</ele>
        <time>2016-07-23T11:31:56Z</time>
      </trkpt>
      <trkpt lat="42.54524" lon="0.17409">
        <ele>730.4</ele>
        <time>2016-07-23T11:31:59Z</time>
      </trkpt>
      <trkpt lat="42.54526" lon="0.17405">
        <ele>729.7</ele>
        <time>2016-07-23T11:32:02Z</time>
      </trkpt>
      <trkpt lat="42.54528" lon="0.17402">
        <ele>728.8</ele>
        <time>2016-07-23T11:32:07Z</time>
      </trkpt>
      <trkpt lat="42.5453" lon="0.17399">
        <ele>727.9</ele>
        <time>2016-07-23T11:32:10Z</time>
      </trkpt>
      <trkpt lat="42.54532" lon="0.17397">
        <ele>726.6</ele>
        <time>2016-07-23T11:32:14Z</time>
      </trkpt>
      <trkpt lat="42.54533" lon="0.17393">
        <ele>726.5</ele>
        <time>2016-07-23T11:32:18Z</time>
      </trkpt>
      <trkpt lat="42.54533" lon="0.17389">
        <ele>727</ele>
        <time>2016-07-23T11:32:21Z</time>
      </trkpt>
      <trkpt lat="42.54533" lon="0.17383">
        <ele>728.3</ele>
        <time>2016-07-23T11:32:24Z</time>
      </trkpt>
      <trkpt lat="42.54533" lon="0.17379">
        <ele>729.1</ele>
        <time>2016-07-23T11:32:26Z</time>
      </trkpt>
      <trkpt lat="42.54532" lon="0.17375">
        <ele>729.9</ele>
        <time>2016-07-23T11:32:29Z</time>
      </trkpt>
      <trkpt lat="42.54532" lon="0.1737">
        <ele>731.7</ele>
        <time>2016-07-23T11:32:33Z</time>
      </trkpt>
      <trkpt lat="42.54532" lon="0.17365">
        <ele>733.5</ele>
        <time>2016-07-23T11:32:39Z</time>
      </trkpt>
      <trkpt lat="42.54533" lon="0.17361">
        <ele>734.7</ele>
        <time>2016-07-23T11:32:41Z</time>
      </trkpt>
      <trkpt lat="42.54534" lon="0.17357">
        <ele>735.3</ele>
        <time>2016-07-23T11:32:43Z</time>
      </trkpt>
      <trkpt lat="42.54535" lon="0.17353">
        <ele>735.9</ele>
        <time>2016-07-23T11:32:45Z</time>
      </trkpt>
      <trkpt lat="42.54538" lon="0.17347">
        <ele>736.5</ele>
        <time>2016-07-23T11:32:47Z</time>
      </trkpt>
      <trkpt lat="42.54539" lon="0.17344">
        <ele>736.6</ele>
        <time>2016-07-23T11:32:48Z</time>
      </trkpt>
      <trkpt lat="42.54541" lon="0.17338">
        <ele>737</ele>
        <time>2016-07-23T11:32:50Z</time>
      </trkpt>
      <trkpt lat="42.54543" lon="0.17334">
        <ele>737.4</ele>
        <time>2016-07-23T11:32:51Z</time>
      </trkpt>
      <trkpt lat="42.54544" lon="0.17331">
        <ele>737.8</ele>
        <time>2016-07-23T11:32:52Z</time>
      </trkpt>
      <trkpt lat="42.54546" lon="0.17327">
        <ele>738</ele>
        <time>2016-07-23T11:32:53Z</time>
      </trkpt>
      <trkpt lat="42.54548" lon="0.17323">
        <ele>738</ele>
        <time>2016-07-23T11:32:54Z</time>
      </trkpt>
      <trkpt lat="42.54552" lon="0.17317">
        <ele>738</ele>
        <time>2016-07-23T11:32:55Z</time>
      </trkpt>
      <trkpt lat="42.54555" lon="0.17311">
        <ele>737.7</ele>
        <time>2016-07-23T11:32:56Z</time>
      </trkpt>
      <trkpt lat="42.54559" lon="0.17306">
        <ele>737.1</ele>
        <time>2016-07-23T11:32:57Z</time>
      </trkpt>
      <trkpt lat="42.54562" lon="0.17303">
        <ele>736.2</ele>
        <time>2016-07-23T11:32:58Z</time>
      </trkpt>
      <trkpt lat="42.54565" lon="0.173">
        <ele>735.3</ele>
        <time>2016-07-23T11:32:59Z</time>
      </trkpt>
      <trkpt lat="42.54568" lon="0.173">
        <ele>733.4</ele>
        <time>2016-07-23T11:33:03Z</time>
      </trkpt>
      <trkpt lat="42.54571" lon="0.17298">
        <ele>732</ele>
        <time>2016-07-23T11:33:06Z</time>
      </trkpt>
      <trkpt lat="42.54574" lon="0.17296">
        <ele>730.7</ele>
        <time>2016-07-23T11:33:08Z</time>
      </trkpt>
      <trkpt lat="42.54578" lon="0.17293">
        <ele>729.1</ele>
        <time>2016-07-23T11:33:10Z</time>
      </trkpt>
      <trkpt lat="42.54581" lon="0.17293">
        <ele>727.1</ele>
        <time>2016-07-23T11:33:13Z</time>
      </trkpt>
      <trkpt lat="42.54581" lon="0.17298">
        <ele>725.7</ele>
        <time>2016-07-23T11:33:17Z</time>
      </trkpt>
      <trkpt lat="42.5458" lon="0.17302">
        <ele>724.7</ele>
        <time>2016-07-23T11:33:19Z</time>
      </trkpt>
      <trkpt lat="42.54583" lon="0.173">
        <ele>722.9</ele>
        <time>2016-07-23T11:33:26Z</time>
      </trkpt>
      <trkpt lat="42.54586" lon="0.173">
        <ele>721.1</ele>
        <time>2016-07-23T11:33:27Z</time>
      </trkpt>
      <trkpt lat="42.5459" lon="0.17299">
        <ele>719</ele>
        <time>2016-07-23T11:33:28Z</time>
      </trkpt>
      <trkpt lat="42.54594" lon="0.17298">
        <ele>717.1</ele>
        <time>2016-07-23T11:33:29Z</time>
      </trkpt>
      <trkpt lat="42.54597" lon="0.17296">
        <ele>715.2</ele>
        <time>2016-07-23T11:33:30Z</time>
      </trkpt>
      <trkpt lat="42.54601" lon="0.17293">
        <ele>713.6</ele>
        <time>2016-07-23T11:33:31Z</time>
      </trkpt>
      <trkpt lat="42.54605" lon="0.1729">
        <ele>712.4</ele>
        <time>2016-07-23T11:33:32Z</time>
      </trkpt>
      <trkpt lat="42.54608" lon="0.17288">
        <ele>711.6</ele>
        <time>2016-07-23T11:33:33Z</time>
      </trkpt>
      <trkpt lat="42.54611" lon="0.17284">
        <ele>711.2</ele>
        <time>2016-07-23T11:33:34Z</time>
      </trkpt>
      <trkpt lat="42.54614" lon="0.17281">
        <ele>710.9</ele>
        <time>2016-07-23T11:33:35Z</time>
      </trkpt>
      <trkpt lat="42.54616" lon="0.17278">
        <ele>710.6</ele>
        <time>2016-07-23T11:33:36Z</time>
      </trkpt>
      <trkpt lat="42.54619" lon="0.17276">
        <ele>709.9</ele>
        <time>2016-07-23T11:33:37Z</time>
      </trkpt>
      <trkpt lat="42.54621" lon="0.17275">
        <ele>708.8</ele>
        <time>2016-07-23T11:33:38Z</time>
      </trkpt>
      <trkpt lat="42.54624" lon="0.17273">
        <ele>707.6</ele>
        <time>2016-07-23T11:33:39Z</time>
      </trkpt>
      <trkpt lat="42.54627" lon="0.17272">
        <ele>706.9</ele>
        <time>2016-07-23T11:33:40Z</time>
      </trkpt>
      <trkpt lat="42.54631" lon="0.17269">
        <ele>706.8</ele>
        <time>2016-07-23T11:33:41Z</time>
      </trkpt>
      <trkpt lat="42.54635" lon="0.17266">
        <ele>706.8</ele>
        <time>2016-07-23T11:33:42Z</time>
      </trkpt>
      <trkpt lat="42.54638" lon="0.17263">
        <ele>707</ele>
        <time>2016-07-23T11:33:43Z</time>
      </trkpt>
      <trkpt lat="42.5464" lon="0.17261">
        <ele>707.5</ele>
        <time>2016-07-23T11:33:44Z</time>
      </trkpt>
      <trkpt lat="42.54643" lon="0.17258">
        <ele>708.1</ele>
        <time>2016-07-23T11:33:45Z</time>
      </trkpt>
      <trkpt lat="42.54645" lon="0.17255">
        <ele>708.8</ele>
        <time>2016-07-23T11:33:46Z</time>
      </trkpt>
      <trkpt lat="42.54647" lon="0.17251">
        <ele>709.5</ele>
        <time>2016-07-23T11:33:47Z</time>
      </trkpt>
      <trkpt lat="42.54649" lon="0.17248">
        <ele>710.1</ele>
        <time>2016-07-23T11:33:48Z</time>
      </trkpt>
      <trkpt lat="42.54651" lon="0.17246">
        <ele>710.5</ele>
        <time>2016-07-23T11:33:49Z</time>
      </trkpt>
      <trkpt lat="42.54654" lon="0.17243">
        <ele>710.7</ele>
        <time>2016-07-23T11:33:50Z</time>
      </trkpt>
      <trkpt lat="42.54656" lon="0.17242">
        <ele>710.7</ele>
        <time>2016-07-23T11:33:51Z</time>
      </trkpt>
      <trkpt lat="42.54659" lon="0.1724">
        <ele>710.4</ele>
        <time>2016-07-23T11:33:52Z</time>
      </trkpt>
      <trkpt lat="42.54662" lon="0.17239">
        <ele>709.9</ele>
        <time>2016-07-23T11:33:53Z</time>
      </trkpt>
      <trkpt lat="42.54665" lon="0.17237">
        <ele>709.3</ele>
        <time>2016-07-23T11:33:54Z</time>
      </trkpt>
      <trkpt lat="42.54669" lon="0.17236">
        <ele>708.6</ele>
        <time>2016-07-23T11:33:55Z</time>
      </trkpt>
      <trkpt lat="42.54673" lon="0.17235">
        <ele>707.9</ele>
        <time>2016-07-23T11:33:56Z</time>
      </trkpt>
      <trkpt lat="42.54677" lon="0.17233">
        <ele>707.1</ele>
        <time>2016-07-23T11:33:57Z</time>
      </trkpt>
      <trkpt lat="42.54681" lon="0.17231">
        <ele>706.2</ele>
        <time>2016-07-23T11:33:58Z</time>
      </trkpt>
      <trkpt lat="42.54685" lon="0.17229">
        <ele>705.6</ele>
        <time>2016-07-23T11:33:59Z</time>
      </trkpt>
      <trkpt lat="42.5469" lon="0.17227">
        <ele>705</ele>
        <time>2016-07-23T11:34:00Z</time>
      </trkpt>
      <trkpt lat="42.54694" lon="0.17224">
        <ele>704.6</ele>
        <time>2016-07-23T11:34:01Z</time>
      </trkpt>
      <trkpt lat="42.54699" lon="0.17221">
        <ele>704.2</ele>
        <time>2016-07-23T11:34:02Z</time>
      </trkpt>
      <trkpt lat="42.54703" lon="0.17218">
        <ele>703.8</ele>
        <time>2016-07-23T11:34:03Z</time>
      </trkpt>
      <trkpt lat="42.54708" lon="0.17216">
        <ele>703.1</ele>
        <time>2016-07-23T11:34:04Z</time>
      </trkpt>
      <trkpt lat="42.54712" lon="0.17214">
        <ele>702.4</ele>
        <time>2016-07-23T11:34:05Z</time>
      </trkpt>
      <trkpt lat="42.54717" lon="0.17212">
        <ele>701.4</ele>
        <time>2016-07-23T11:34:06Z</time>
      </trkpt>
      <trkpt lat="42.54722" lon="0.17211">
        <ele>700.4</ele>
        <time>2016-07-23T11:34:07Z</time>
      </trkpt>
      <trkpt lat="42.54727" lon="0.17209">
        <ele>699.3</ele>
        <time>2016-07-23T11:34:08Z</time>
      </trkpt>
      <trkpt lat="42.54732" lon="0.17206">
        <ele>698.3</ele>
        <time>2016-07-23T11:34:09Z</time>
      </trkpt>
      <trkpt lat="42.54736" lon="0.17204">
        <ele>697.4</ele>
        <time>2016-07-23T11:34:10Z</time>
      </trkpt>
      <trkpt lat="42.5474" lon="0.17201">
        <ele>696.6</ele>
        <time>2016-07-23T11:34:11Z</time>
      </trkpt>
      <trkpt lat="42.54743" lon="0.17198">
        <ele>696.1</ele>
        <time>2016-07-23T11:34:12Z</time>
      </trkpt>
      <trkpt lat="42.54747" lon="0.17195">
        <ele>695.6</ele>
        <time>2016-07-23T11:34:13Z</time>
      </trkpt>
      <trkpt lat="42.5475" lon="0.1719">
        <ele>695.6</ele>
        <time>2016-07-23T11:34:14Z</time>
      </trkpt>
      <trkpt lat="42.54752" lon="0.17185">
        <ele>695.9</ele>
        <time>2016-07-23T11:34:15Z</time>
      </trkpt>
      <trkpt lat="42.54753" lon="0.17179">
        <ele>696.6</ele>
        <time>2016-07-23T11:34:16Z</time>
      </trkpt>
      <trkpt lat="42.54754" lon="0.17175">
        <ele>697</ele>
        <time>2016-07-23T11:34:17Z</time>
      </trkpt>
      <trkpt lat="42.54756" lon="0.17172">
        <ele>697.1</ele>
        <time>2016-07-23T11:34:18Z</time>
      </trkpt>
      <trkpt lat="42.54758" lon="0.17167">
        <ele>697</ele>
        <time>2016-07-23T11:34:20Z</time>
      </trkpt>
      <trkpt lat="42.54761" lon="0.17162">
        <ele>697</ele>
        <time>2016-07-23T11:34:22Z</time>
      </trkpt>
      <trkpt lat="42.54762" lon="0.17157">
        <ele>697.4</ele>
        <time>2016-07-23T11:34:24Z</time>
      </trkpt>
      <trkpt lat="42.54763" lon="0.17151">
        <ele>698</ele>
        <time>2016-07-23T11:34:26Z</time>
      </trkpt>
      <trkpt lat="42.54764" lon="0.17145">
        <ele>698.9</ele>
        <time>2016-07-23T11:34:28Z</time>
      </trkpt>
      <trkpt lat="42.54764" lon="0.1714">
        <ele>699.9</ele>
        <time>2016-07-23T11:34:30Z</time>
      </trkpt>
      <trkpt lat="42.54763" lon="0.17135">
        <ele>701</ele>
        <time>2016-07-23T11:34:32Z</time>
      </trkpt>
      <trkpt lat="42.54764" lon="0.1713">
        <ele>701.6</ele>
        <time>2016-07-23T11:34:34Z</time>
      </trkpt>
      <trkpt lat="42.54766" lon="0.17126">
        <ele>701.5</ele>
        <time>2016-07-23T11:34:36Z</time>
      </trkpt>
      <trkpt lat="42.54768" lon="0.17119">
        <ele>700</ele>
        <time>2016-07-23T11:34:38Z</time>
      </trkpt>
      <trkpt lat="42.54769" lon="0.17115">
        <ele>699.3</ele>
        <time>2016-07-23T11:34:39Z</time>
      </trkpt>
      <trkpt lat="42.54769" lon="0.17111">
        <ele>698.8</ele>
        <time>2016-07-23T11:34:40Z</time>
      </trkpt>
      <trkpt lat="42.54769" lon="0.17108">
        <ele>698.4</ele>
        <time>2016-07-23T11:34:41Z</time>
      </trkpt>
      <trkpt lat="42.54769" lon="0.17104">
        <ele>698</ele>
        <time>2016-07-23T11:34:42Z</time>
      </trkpt>
      <trkpt lat="42.54769" lon="0.17099">
        <ele>697.7</ele>
        <time>2016-07-23T11:34:43Z</time>
      </trkpt>
      <trkpt lat="42.54769" lon="0.17094">
        <ele>697.2</ele>
        <time>2016-07-23T11:34:44Z</time>
      </trkpt>
      <trkpt lat="42.54769" lon="0.17089">
        <ele>696.4</ele>
        <time>2016-07-23T11:34:45Z</time>
      </trkpt>
      <trkpt lat="42.5477" lon="0.17083">
        <ele>695.6</ele>
        <time>2016-07-23T11:34:46Z</time>
      </trkpt>
      <trkpt lat="42.5477" lon="0.17078">
        <ele>695</ele>
        <time>2016-07-23T11:34:47Z</time>
      </trkpt>
      <trkpt lat="42.5477" lon="0.17073">
        <ele>694.5</ele>
        <time>2016-07-23T11:34:48Z</time>
      </trkpt>
      <trkpt lat="42.5477" lon="0.17067">
        <ele>693.8</ele>
        <time>2016-07-23T11:34:49Z</time>
      </trkpt>
      <trkpt lat="42.54771" lon="0.17062">
        <ele>693</ele>
        <time>2016-07-23T11:34:50Z</time>
      </trkpt>
      <trkpt lat="42.54772" lon="0.17057">
        <ele>692.1</ele>
        <time>2016-07-23T11:34:51Z</time>
      </trkpt>
      <trkpt lat="42.54773" lon="0.17052">
        <ele>691</ele>
        <time>2016-07-23T11:34:52Z</time>
      </trkpt>
      <trkpt lat="42.54774" lon="0.17047">
        <ele>689.8</ele>
        <time>2016-07-23T11:34:53Z</time>
      </trkpt>
      <trkpt lat="42.54775" lon="0.17041">
        <ele>688.7</ele>
        <time>2016-07-23T11:34:54Z</time>
      </trkpt>
      <trkpt lat="42.54776" lon="0.17034">
        <ele>686.7</ele>
        <time>2016-07-23T11:34:55Z</time>
      </trkpt>
      <trkpt lat="42.54777" lon="0.17027">
        <ele>685</ele>
        <time>2016-07-23T11:34:56Z</time>
      </trkpt>
      <trkpt lat="42.54777" lon="0.17022">
        <ele>684.2</ele>
        <time>2016-07-23T11:34:57Z</time>
      </trkpt>
      <trkpt lat="42.54777" lon="0.17017">
        <ele>683.2</ele>
        <time>2016-07-23T11:34:59Z</time>
      </trkpt>
      <trkpt lat="42.54776" lon="0.17012">
        <ele>682.8</ele>
        <time>2016-07-23T11:35:03Z</time>
      </trkpt>
      <trkpt lat="42.54776" lon="0.17008">
        <ele>682.6</ele>
        <time>2016-07-23T11:35:04Z</time>
      </trkpt>
      <trkpt lat="42.54775" lon="0.17003">
        <ele>682.1</ele>
        <time>2016-07-23T11:35:05Z</time>
      </trkpt>
      <trkpt lat="42.54773" lon="0.16997">
        <ele>681.7</ele>
        <time>2016-07-23T11:35:06Z</time>
      </trkpt>
      <trkpt lat="42.54773" lon="0.16991">
        <ele>680.9</ele>
        <time>2016-07-23T11:35:07Z</time>
      </trkpt>
      <trkpt lat="42.54773" lon="0.16984">
        <ele>679.9</ele>
        <time>2016-07-23T11:35:08Z</time>
      </trkpt>
      <trkpt lat="42.54772" lon="0.16979">
        <ele>679.2</ele>
        <time>2016-07-23T11:35:09Z</time>
      </trkpt>
      <trkpt lat="42.54771" lon="0.16974">
        <ele>678.7</ele>
        <time>2016-07-23T11:35:10Z</time>
      </trkpt>
      <trkpt lat="42.5477" lon="0.16969">
        <ele>678.5</ele>
        <time>2016-07-23T11:35:11Z</time>
      </trkpt>
      <trkpt lat="42.54769" lon="0.16963">
        <ele>678.2</ele>
        <time>2016-07-23T11:35:12Z</time>
      </trkpt>
      <trkpt lat="42.54767" lon="0.16957">
        <ele>678.1</ele>
        <time>2016-07-23T11:35:13Z</time>
      </trkpt>
      <trkpt lat="42.54765" lon="0.1695">
        <ele>678.8</ele>
        <time>2016-07-23T11:35:14Z</time>
      </trkpt>
      <trkpt lat="42.54762" lon="0.16942">
        <ele>679.6</ele>
        <time>2016-07-23T11:35:15Z</time>
      </trkpt>
      <trkpt lat="42.5476" lon="0.16934">
        <ele>680.3</ele>
        <time>2016-07-23T11:35:16Z</time>
      </trkpt>
      <trkpt lat="42.54757" lon="0.16926">
        <ele>680.8</ele>
        <time>2016-07-23T11:35:17Z</time>
      </trkpt>
      <trkpt lat="42.54755" lon="0.16918">
        <ele>681.1</ele>
        <time>2016-07-23T11:35:18Z</time>
      </trkpt>
      <trkpt lat="42.54752" lon="0.1691">
        <ele>681.4</ele>
        <time>2016-07-23T11:35:19Z</time>
      </trkpt>
      <trkpt lat="42.5475" lon="0.16902">
        <ele>681.8</ele>
        <time>2016-07-23T11:35:20Z</time>
      </trkpt>
      <trkpt lat="42.54744" lon="0.16895">
        <ele>683.6</ele>
        <time>2016-07-23T11:35:21Z</time>
      </trkpt>
      <trkpt lat="42.54741" lon="0.16889">
        <ele>684.1</ele>
        <time>2016-07-23T11:35:22Z</time>
      </trkpt>
      <trkpt lat="42.54739" lon="0.16881">
        <ele>684.1</ele>
        <time>2016-07-23T11:35:23Z</time>
      </trkpt>
      <trkpt lat="42.54737" lon="0.16875">
        <ele>684.2</ele>
        <time>2016-07-23T11:35:24Z</time>
      </trkpt>
      <trkpt lat="42.54736" lon="0.16868">
        <ele>684.3</ele>
        <time>2016-07-23T11:35:25Z</time>
      </trkpt>
      <trkpt lat="42.54734" lon="0.1686">
        <ele>684.7</ele>
        <time>2016-07-23T11:35:26Z</time>
      </trkpt>
      <trkpt lat="42.54731" lon="0.16853">
        <ele>685.2</ele>
        <time>2016-07-23T11:35:27Z</time>
      </trkpt>
      <trkpt lat="42.54728" lon="0.16848">
        <ele>686.1</ele>
        <time>2016-07-23T11:35:28Z</time>
      </trkpt>
      <trkpt lat="42.54726" lon="0.16842">
        <ele>686.4</ele>
        <time>2016-07-23T11:35:29Z</time>
      </trkpt>
      <trkpt lat="42.54724" lon="0.16837">
        <ele>686.9</ele>
        <time>2016-07-23T11:35:30Z</time>
      </trkpt>
      <trkpt lat="42.54723" lon="0.16831">
        <ele>686.8</ele>
        <time>2016-07-23T11:35:31Z</time>
      </trkpt>
      <trkpt lat="42.54722" lon="0.16824">
        <ele>686.9</ele>
        <time>2016-07-23T11:35:32Z</time>
      </trkpt>
      <trkpt lat="42.5472" lon="0.16819">
        <ele>687.2</ele>
        <time>2016-07-23T11:35:33Z</time>
      </trkpt>
      <trkpt lat="42.54718" lon="0.16812">
        <ele>687.2</ele>
        <time>2016-07-23T11:35:34Z</time>
      </trkpt>
      <trkpt lat="42.54716" lon="0.16807">
        <ele>687.6</ele>
        <time>2016-07-23T11:35:35Z</time>
      </trkpt>
      <trkpt lat="42.54713" lon="0.16803">
        <ele>688.4</ele>
        <time>2016-07-23T11:35:36Z</time>
      </trkpt>
      <trkpt lat="42.54711" lon="0.168">
        <ele>688.9</ele>
        <time>2016-07-23T11:35:37Z</time>
      </trkpt>
      <trkpt lat="42.54709" lon="0.16795">
        <ele>689.1</ele>
        <time>2016-07-23T11:35:38Z</time>
      </trkpt>
      <trkpt lat="42.5471" lon="0.1679">
        <ele>688.5</ele>
        <time>2016-07-23T11:35:39Z</time>
      </trkpt>
      <trkpt lat="42.54709" lon="0.16785">
        <ele>688.3</ele>
        <time>2016-07-23T11:35:40Z</time>
      </trkpt>
      <trkpt lat="42.54709" lon="0.1678">
        <ele>688.2</ele>
        <time>2016-07-23T11:35:41Z</time>
      </trkpt>
      <trkpt lat="42.54708" lon="0.16774">
        <ele>688.2</ele>
        <time>2016-07-23T11:35:42Z</time>
      </trkpt>
      <trkpt lat="42.54707" lon="0.16765">
        <ele>688</ele>
        <time>2016-07-23T11:35:43Z</time>
      </trkpt>
      <trkpt lat="42.54706" lon="0.16758">
        <ele>688.4</ele>
        <time>2016-07-23T11:35:44Z</time>
      </trkpt>
      <trkpt lat="42.54705" lon="0.1675">
        <ele>688.2</ele>
        <time>2016-07-23T11:35:45Z</time>
      </trkpt>
      <trkpt lat="42.54704" lon="0.16743">
        <ele>688.2</ele>
        <time>2016-07-23T11:35:46Z</time>
      </trkpt>
      <trkpt lat="42.54704" lon="0.16736">
        <ele>688.1</ele>
        <time>2016-07-23T11:35:47Z</time>
      </trkpt>
      <trkpt lat="42.54704" lon="0.16731">
        <ele>687.9</ele>
        <time>2016-07-23T11:35:48Z</time>
      </trkpt>
      <trkpt lat="42.54704" lon="0.16724">
        <ele>687.6</ele>
        <time>2016-07-23T11:35:49Z</time>
      </trkpt>
      <trkpt lat="42.54702" lon="0.16718">
        <ele>688</ele>
        <time>2016-07-23T11:35:50Z</time>
      </trkpt>
      <trkpt lat="42.54704" lon="0.1671">
        <ele>686.3</ele>
        <time>2016-07-23T11:35:52Z</time>
      </trkpt>
      <trkpt lat="42.54705" lon="0.16704">
        <ele>685.7</ele>
        <time>2016-07-23T11:35:53Z</time>
      </trkpt>
      <trkpt lat="42.54706" lon="0.16701">
        <ele>685.4</ele>
        <time>2016-07-23T11:35:54Z</time>
      </trkpt>
      <trkpt lat="42.54708" lon="0.16694">
        <ele>684.7</ele>
        <time>2016-07-23T11:35:56Z</time>
      </trkpt>
      <trkpt lat="42.54707" lon="0.16686">
        <ele>685.3</ele>
        <time>2016-07-23T11:35:58Z</time>
      </trkpt>
      <trkpt lat="42.54708" lon="0.16682">
        <ele>685.1</ele>
        <time>2016-07-23T11:35:59Z</time>
      </trkpt>
      <trkpt lat="42.54707" lon="0.16677">
        <ele>685.4</ele>
        <time>2016-07-23T11:36:00Z</time>
      </trkpt>
      <trkpt lat="42.54707" lon="0.16672">
        <ele>685.6</ele>
        <time>2016-07-23T11:36:01Z</time>
      </trkpt>
      <trkpt lat="42.54707" lon="0.16666">
        <ele>686</ele>
        <time>2016-07-23T11:36:02Z</time>
      </trkpt>
      <trkpt lat="42.54706" lon="0.16661">
        <ele>686.6</ele>
        <time>2016-07-23T11:36:03Z</time>
      </trkpt>
      <trkpt lat="42.54705" lon="0.16657">
        <ele>687.3</ele>
        <time>2016-07-23T11:36:04Z</time>
      </trkpt>
      <trkpt lat="42.54704" lon="0.16652">
        <ele>688</ele>
        <time>2016-07-23T11:36:05Z</time>
      </trkpt>
      <trkpt lat="42.54703" lon="0.16647">
        <ele>688.6</ele>
        <time>2016-07-23T11:36:06Z</time>
      </trkpt>
      <trkpt lat="42.54702" lon="0.16642">
        <ele>689.2</ele>
        <time>2016-07-23T11:36:07Z</time>
      </trkpt>
      <trkpt lat="42.54701" lon="0.16638">
        <ele>689.7</ele>
        <time>2016-07-23T11:36:08Z</time>
      </trkpt>
      <trkpt lat="42.547" lon="0.16634">
        <ele>690.2</ele>
        <time>2016-07-23T11:36:09Z</time>
      </trkpt>
      <trkpt lat="42.547" lon="0.16629">
        <ele>690.6</ele>
        <time>2016-07-23T11:36:10Z</time>
      </trkpt>
      <trkpt lat="42.547" lon="0.16624">
        <ele>690.7</ele>
        <time>2016-07-23T11:36:11Z</time>
      </trkpt>
      <trkpt lat="42.54699" lon="0.1662">
        <ele>690.4</ele>
        <time>2016-07-23T11:36:12Z</time>
      </trkpt>
      <trkpt lat="42.54699" lon="0.16615">
        <ele>690.1</ele>
        <time>2016-07-23T11:36:13Z</time>
      </trkpt>
      <trkpt lat="42.54698" lon="0.1661">
        <ele>689.8</ele>
        <time>2016-07-23T11:36:14Z</time>
      </trkpt>
      <trkpt lat="42.54698" lon="0.16605">
        <ele>689.6</ele>
        <time>2016-07-23T11:36:15Z</time>
      </trkpt>
      <trkpt lat="42.54697" lon="0.166">
        <ele>689.3</ele>
        <time>2016-07-23T11:36:16Z</time>
      </trkpt>
      <trkpt lat="42.54696" lon="0.16595">
        <ele>689.3</ele>
        <time>2016-07-23T11:36:17Z</time>
      </trkpt>
      <trkpt lat="42.54695" lon="0.1659">
        <ele>689.4</ele>
        <time>2016-07-23T11:36:18Z</time>
      </trkpt>
      <trkpt lat="42.54693" lon="0.16586">
        <ele>689.7</ele>
        <time>2016-07-23T11:36:19Z</time>
      </trkpt>
      <trkpt lat="42.54692" lon="0.16581">
        <ele>689.9</ele>
        <time>2016-07-23T11:36:20Z</time>
      </trkpt>
      <trkpt lat="42.54691" lon="0.16577">
        <ele>690.2</ele>
        <time>2016-07-23T11:36:21Z</time>
      </trkpt>
      <trkpt lat="42.5469" lon="0.16573">
        <ele>690.4</ele>
        <time>2016-07-23T11:36:22Z</time>
      </trkpt>
      <trkpt lat="42.54689" lon="0.16569">
        <ele>690.4</ele>
        <time>2016-07-23T11:36:23Z</time>
      </trkpt>
      <trkpt lat="42.54688" lon="0.16565">
        <ele>690.4</ele>
        <time>2016-07-23T11:36:24Z</time>
      </trkpt>
      <trkpt lat="42.54688" lon="0.16561">
        <ele>690.1</ele>
        <time>2016-07-23T11:36:25Z</time>
      </trkpt>
      <trkpt lat="42.54687" lon="0.16557">
        <ele>690</ele>
        <time>2016-07-23T11:36:26Z</time>
      </trkpt>
      <trkpt lat="42.54686" lon="0.16553">
        <ele>689.8</ele>
        <time>2016-07-23T11:36:27Z</time>
      </trkpt>
      <trkpt lat="42.54686" lon="0.16549">
        <ele>689.6</ele>
        <time>2016-07-23T11:36:28Z</time>
      </trkpt>
      <trkpt lat="42.54686" lon="0.16541">
        <ele>689</ele>
        <time>2016-07-23T11:36:30Z</time>
      </trkpt>
      <trkpt lat="42.54684" lon="0.16535">
        <ele>689.5</ele>
        <time>2016-07-23T11:36:32Z</time>
      </trkpt>
      <trkpt lat="42.54682" lon="0.16532">
        <ele>689.9</ele>
        <time>2016-07-23T11:36:33Z</time>
      </trkpt>
      <trkpt lat="42.54681" lon="0.16528">
        <ele>690.5</ele>
        <time>2016-07-23T11:36:34Z</time>
      </trkpt>
      <trkpt lat="42.54679" lon="0.16524">
        <ele>690.9</ele>
        <time>2016-07-23T11:36:35Z</time>
      </trkpt>
      <trkpt lat="42.54678" lon="0.1652">
        <ele>691.2</ele>
        <time>2016-07-23T11:36:36Z</time>
      </trkpt>
      <trkpt lat="42.54677" lon="0.16516">
        <ele>691.4</ele>
        <time>2016-07-23T11:36:37Z</time>
      </trkpt>
      <trkpt lat="42.54676" lon="0.16511">
        <ele>691.5</ele>
        <time>2016-07-23T11:36:38Z</time>
      </trkpt>
      <trkpt lat="42.54675" lon="0.16505">
        <ele>691.5</ele>
        <time>2016-07-23T11:36:39Z</time>
      </trkpt>
      <trkpt lat="42.54675" lon="0.165">
        <ele>691.4</ele>
        <time>2016-07-23T11:36:40Z</time>
      </trkpt>
      <trkpt lat="42.54674" lon="0.16494">
        <ele>691.3</ele>
        <time>2016-07-23T11:36:41Z</time>
      </trkpt>
      <trkpt lat="42.54673" lon="0.16488">
        <ele>691.1</ele>
        <time>2016-07-23T11:36:42Z</time>
      </trkpt>
      <trkpt lat="42.54672" lon="0.16482">
        <ele>691.2</ele>
        <time>2016-07-23T11:36:43Z</time>
      </trkpt>
      <trkpt lat="42.54671" lon="0.16476">
        <ele>691.6</ele>
        <time>2016-07-23T11:36:44Z</time>
      </trkpt>
      <trkpt lat="42.54669" lon="0.1647">
        <ele>692</ele>
        <time>2016-07-23T11:36:45Z</time>
      </trkpt>
      <trkpt lat="42.54665" lon="0.16463">
        <ele>693.2</ele>
        <time>2016-07-23T11:36:46Z</time>
      </trkpt>
      <trkpt lat="42.54663" lon="0.16457">
        <ele>693.6</ele>
        <time>2016-07-23T11:36:47Z</time>
      </trkpt>
      <trkpt lat="42.54661" lon="0.16452">
        <ele>694.3</ele>
        <time>2016-07-23T11:36:48Z</time>
      </trkpt>
      <trkpt lat="42.54658" lon="0.16445">
        <ele>695</ele>
        <time>2016-07-23T11:36:49Z</time>
      </trkpt>
      <trkpt lat="42.54657" lon="0.1644">
        <ele>695.3</ele>
        <time>2016-07-23T11:36:50Z</time>
      </trkpt>
      <trkpt lat="42.54656" lon="0.16434">
        <ele>695.1</ele>
        <time>2016-07-23T11:36:51Z</time>
      </trkpt>
      <trkpt lat="42.54656" lon="0.16427">
        <ele>694.2</ele>
        <time>2016-07-23T11:36:52Z</time>
      </trkpt>
      <trkpt lat="42.54655" lon="0.16422">
        <ele>694.4</ele>
        <time>2016-07-23T11:36:53Z</time>
      </trkpt>
      <trkpt lat="42.54656" lon="0.16415">
        <ele>693.3</ele>
        <time>2016-07-23T11:36:54Z</time>
      </trkpt>
      <trkpt lat="42.54654" lon="0.16413">
        <ele>694.1</ele>
        <time>2016-07-23T11:36:55Z</time>
      </trkpt>
      <trkpt lat="42.54652" lon="0.16409">
        <ele>694.7</ele>
        <time>2016-07-23T11:36:56Z</time>
      </trkpt>
      <trkpt lat="42.54651" lon="0.16403">
        <ele>694.5</ele>
        <time>2016-07-23T11:36:57Z</time>
      </trkpt>
      <trkpt lat="42.54652" lon="0.16399">
        <ele>693.6</ele>
        <time>2016-07-23T11:36:58Z</time>
      </trkpt>
      <trkpt lat="42.54652" lon="0.16391">
        <ele>693.2</ele>
        <time>2016-07-23T11:37:00Z</time>
      </trkpt>
      <trkpt lat="42.54649" lon="0.16386">
        <ele>694</ele>
        <time>2016-07-23T11:37:02Z</time>
      </trkpt>
      <trkpt lat="42.54645" lon="0.16384">
        <ele>695.6</ele>
        <time>2016-07-23T11:37:04Z</time>
      </trkpt>
      <trkpt lat="42.54642" lon="0.16384">
        <ele>697</ele>
        <time>2016-07-23T11:37:07Z</time>
      </trkpt>
      <trkpt lat="42.5464" lon="0.1638">
        <ele>697.4</ele>
        <time>2016-07-23T11:37:10Z</time>
      </trkpt>
      <trkpt lat="42.54639" lon="0.16376">
        <ele>697.6</ele>
        <time>2016-07-23T11:37:13Z</time>
      </trkpt>
      <trkpt lat="42.5464" lon="0.16372">
        <ele>696.7</ele>
        <time>2016-07-23T11:37:16Z</time>
      </trkpt>
      <trkpt lat="42.54641" lon="0.16365">
        <ele>695</ele>
        <time>2016-07-23T11:37:22Z</time>
      </trkpt>
      <trkpt lat="42.54643" lon="0.16362">
        <ele>693.6</ele>
        <time>2016-07-23T11:37:23Z</time>
      </trkpt>
      <trkpt lat="42.54642" lon="0.16358">
        <ele>693.4</ele>
        <time>2016-07-23T11:37:28Z</time>
      </trkpt>
      <trkpt lat="42.54639" lon="0.16358">
        <ele>695</ele>
        <time>2016-07-23T11:37:31Z</time>
      </trkpt>
      <trkpt lat="42.54635" lon="0.16361">
        <ele>697.2</ele>
        <time>2016-07-23T11:37:33Z</time>
      </trkpt>
      <trkpt lat="42.54635" lon="0.16356">
        <ele>696.4</ele>
        <time>2016-07-23T11:37:36Z</time>
      </trkpt>
      <trkpt lat="42.54637" lon="0.16352">
        <ele>694.8</ele>
        <time>2016-07-23T11:37:38Z</time>
      </trkpt>
      <trkpt lat="42.54639" lon="0.16347">
        <ele>693.3</ele>
        <time>2016-07-23T11:37:40Z</time>
      </trkpt>
      <trkpt lat="42.54641" lon="0.16342">
        <ele>691.6</ele>
        <time>2016-07-23T11:37:42Z</time>
      </trkpt>
      <trkpt lat="42.54643" lon="0.16337">
        <ele>689.9</ele>
        <time>2016-07-23T11:37:44Z</time>
      </trkpt>
      <trkpt lat="42.54645" lon="0.16333">
        <ele>688.9</ele>
        <time>2016-07-23T11:37:45Z</time>
      </trkpt>
      <trkpt lat="42.54646" lon="0.1633">
        <ele>687.8</ele>
        <time>2016-07-23T11:37:46Z</time>
      </trkpt>
      <trkpt lat="42.54647" lon="0.16326">
        <ele>686.9</ele>
        <time>2016-07-23T11:37:47Z</time>
      </trkpt>
      <trkpt lat="42.54648" lon="0.16322">
        <ele>686.1</ele>
        <time>2016-07-23T11:37:48Z</time>
      </trkpt>
      <trkpt lat="42.54647" lon="0.16317">
        <ele>685.5</ele>
        <time>2016-07-23T11:37:49Z</time>
      </trkpt>
      <trkpt lat="42.54647" lon="0.16312">
        <ele>684.8</ele>
        <time>2016-07-23T11:37:50Z</time>
      </trkpt>
      <trkpt lat="42.54647" lon="0.16307">
        <ele>684.1</ele>
        <time>2016-07-23T11:37:51Z</time>
      </trkpt>
      <trkpt lat="42.54648" lon="0.16302">
        <ele>683.3</ele>
        <time>2016-07-23T11:37:52Z</time>
      </trkpt>
      <trkpt lat="42.54648" lon="0.16296">
        <ele>682.3</ele>
        <time>2016-07-23T11:37:53Z</time>
      </trkpt>
      <trkpt lat="42.54648" lon="0.16291">
        <ele>681.4</ele>
        <time>2016-07-23T11:37:54Z</time>
      </trkpt>
      <trkpt lat="42.54648" lon="0.16285">
        <ele>680.6</ele>
        <time>2016-07-23T11:37:55Z</time>
      </trkpt>
      <trkpt lat="42.54647" lon="0.1628">
        <ele>680</ele>
        <time>2016-07-23T11:37:56Z</time>
      </trkpt>
      <trkpt lat="42.54645" lon="0.16275">
        <ele>679.6</ele>
        <time>2016-07-23T11:37:57Z</time>
      </trkpt>
      <trkpt lat="42.54643" lon="0.1627">
        <ele>679.2</ele>
        <time>2016-07-23T11:37:58Z</time>
      </trkpt>
      <trkpt lat="42.54641" lon="0.16266">
        <ele>679</ele>
        <time>2016-07-23T11:37:59Z</time>
      </trkpt>
      <trkpt lat="42.54639" lon="0.16262">
        <ele>678.8</ele>
        <time>2016-07-23T11:38:00Z</time>
      </trkpt>
      <trkpt lat="42.54635" lon="0.16256">
        <ele>678.6</ele>
        <time>2016-07-23T11:38:01Z</time>
      </trkpt>
      <trkpt lat="42.54632" lon="0.16252">
        <ele>678.4</ele>
        <time>2016-07-23T11:38:02Z</time>
      </trkpt>
      <trkpt lat="42.54628" lon="0.16247">
        <ele>678.4</ele>
        <time>2016-07-23T11:38:03Z</time>
      </trkpt>
      <trkpt lat="42.54624" lon="0.16243">
        <ele>678.4</ele>
        <time>2016-07-23T11:38:04Z</time>
      </trkpt>
      <trkpt lat="42.54621" lon="0.16239">
        <ele>678.1</ele>
        <time>2016-07-23T11:38:05Z</time>
      </trkpt>
      <trkpt lat="42.54617" lon="0.16235">
        <ele>677.8</ele>
        <time>2016-07-23T11:38:06Z</time>
      </trkpt>
      <trkpt lat="42.54614" lon="0.16232">
        <ele>677.6</ele>
        <time>2016-07-23T11:38:07Z</time>
      </trkpt>
      <trkpt lat="42.5461" lon="0.16229">
        <ele>677.3</ele>
        <time>2016-07-23T11:38:08Z</time>
      </trkpt>
      <trkpt lat="42.54607" lon="0.16225">
        <ele>676.8</ele>
        <time>2016-07-23T11:38:09Z</time>
      </trkpt>
      <trkpt lat="42.54604" lon="0.16221">
        <ele>676.3</ele>
        <time>2016-07-23T11:38:10Z</time>
      </trkpt>
      <trkpt lat="42.54602" lon="0.16216">
        <ele>675.5</ele>
        <time>2016-07-23T11:38:11Z</time>
      </trkpt>
      <trkpt lat="42.546" lon="0.16212">
        <ele>674.8</ele>
        <time>2016-07-23T11:38:12Z</time>
      </trkpt>
      <trkpt lat="42.54597" lon="0.16208">
        <ele>674.2</ele>
        <time>2016-07-23T11:38:13Z</time>
      </trkpt>
      <trkpt lat="42.54595" lon="0.16203">
        <ele>673.6</ele>
        <time>2016-07-23T11:38:14Z</time>
      </trkpt>
      <trkpt lat="42.54592" lon="0.16198">
        <ele>672.9</ele>
        <time>2016-07-23T11:38:15Z</time>
      </trkpt>
      <trkpt lat="42.54589" lon="0.16193">
        <ele>671.9</ele>
        <time>2016-07-23T11:38:16Z</time>
      </trkpt>
      <trkpt lat="42.54587" lon="0.16188">
        <ele>671</ele>
        <time>2016-07-23T11:38:17Z</time>
      </trkpt>
      <trkpt lat="42.54584" lon="0.16183">
        <ele>670.1</ele>
        <time>2016-07-23T11:38:18Z</time>
      </trkpt>
      <trkpt lat="42.54581" lon="0.16178">
        <ele>669.3</ele>
        <time>2016-07-23T11:38:19Z</time>
      </trkpt>
      <trkpt lat="42.54578" lon="0.16174">
        <ele>668.5</ele>
        <time>2016-07-23T11:38:20Z</time>
      </trkpt>
      <trkpt lat="42.54576" lon="0.1617">
        <ele>667.9</ele>
        <time>2016-07-23T11:38:21Z</time>
      </trkpt>
      <trkpt lat="42.54573" lon="0.16164">
        <ele>666.6</ele>
        <time>2016-07-23T11:38:23Z</time>
      </trkpt>
      <trkpt lat="42.5457" lon="0.1616">
        <ele>665.7</ele>
        <time>2016-07-23T11:38:24Z</time>
      </trkpt>
      <trkpt lat="42.54568" lon="0.16156">
        <ele>664.7</ele>
        <time>2016-07-23T11:38:25Z</time>
      </trkpt>
      <trkpt lat="42.54565" lon="0.16152">
        <ele>663.8</ele>
        <time>2016-07-23T11:38:26Z</time>
      </trkpt>
      <trkpt lat="42.54562" lon="0.16148">
        <ele>662.9</ele>
        <time>2016-07-23T11:38:27Z</time>
      </trkpt>
      <trkpt lat="42.54559" lon="0.16144">
        <ele>662.1</ele>
        <time>2016-07-23T11:38:28Z</time>
      </trkpt>
      <trkpt lat="42.54555" lon="0.16141">
        <ele>661.4</ele>
        <time>2016-07-23T11:38:29Z</time>
      </trkpt>
      <trkpt lat="42.54552" lon="0.16139">
        <ele>660.8</ele>
        <time>2016-07-23T11:38:30Z</time>
      </trkpt>
      <trkpt lat="42.54547" lon="0.16137">
        <ele>660.5</ele>
        <time>2016-07-23T11:38:31Z</time>
      </trkpt>
      <trkpt lat="42.54543" lon="0.16136">
        <ele>660.3</ele>
        <time>2016-07-23T11:38:32Z</time>
      </trkpt>
      <trkpt lat="42.54538" lon="0.16135">
        <ele>659.9</ele>
        <time>2016-07-23T11:38:33Z</time>
      </trkpt>
      <trkpt lat="42.54534" lon="0.16133">
        <ele>659</ele>
        <time>2016-07-23T11:38:34Z</time>
      </trkpt>
      <trkpt lat="42.54529" lon="0.16129">
        <ele>657.8</ele>
        <time>2016-07-23T11:38:35Z</time>
      </trkpt>
      <trkpt lat="42.54524" lon="0.16126">
        <ele>656.3</ele>
        <time>2016-07-23T11:38:36Z</time>
      </trkpt>
      <trkpt lat="42.54519" lon="0.16122">
        <ele>655.8</ele>
        <time>2016-07-23T11:38:37Z</time>
      </trkpt>
      <trkpt lat="42.54514" lon="0.16119">
        <ele>655.5</ele>
        <time>2016-07-23T11:38:38Z</time>
      </trkpt>
      <trkpt lat="42.54509" lon="0.16118">
        <ele>655.2</ele>
        <time>2016-07-23T11:38:39Z</time>
      </trkpt>
      <trkpt lat="42.54504" lon="0.16117">
        <ele>654.9</ele>
        <time>2016-07-23T11:38:40Z</time>
      </trkpt>
      <trkpt lat="42.54498" lon="0.16117">
        <ele>654.7</ele>
        <time>2016-07-23T11:38:41Z</time>
      </trkpt>
      <trkpt lat="42.54493" lon="0.16117">
        <ele>654.4</ele>
        <time>2016-07-23T11:38:42Z</time>
      </trkpt>
      <trkpt lat="42.54487" lon="0.16118">
        <ele>654.2</ele>
        <time>2016-07-23T11:38:43Z</time>
      </trkpt>
      <trkpt lat="42.54481" lon="0.16118">
        <ele>653.9</ele>
        <time>2016-07-23T11:38:44Z</time>
      </trkpt>
      <trkpt lat="42.54476" lon="0.16119">
        <ele>653.7</ele>
        <time>2016-07-23T11:38:45Z</time>
      </trkpt>
      <trkpt lat="42.5447" lon="0.1612">
        <ele>653.5</ele>
        <time>2016-07-23T11:38:46Z</time>
      </trkpt>
      <trkpt lat="42.54465" lon="0.16121">
        <ele>653.3</ele>
        <time>2016-07-23T11:38:47Z</time>
      </trkpt>
      <trkpt lat="42.5446" lon="0.16122">
        <ele>653</ele>
        <time>2016-07-23T11:38:48Z</time>
      </trkpt>
      <trkpt lat="42.54455" lon="0.16122">
        <ele>653</ele>
        <time>2016-07-23T11:38:49Z</time>
      </trkpt>
      <trkpt lat="42.54451" lon="0.16123">
        <ele>653.1</ele>
        <time>2016-07-23T11:38:50Z</time>
      </trkpt>
      <trkpt lat="42.54446" lon="0.16123">
        <ele>653.2</ele>
        <time>2016-07-23T11:38:51Z</time>
      </trkpt>
      <trkpt lat="42.54442" lon="0.16123">
        <ele>653.3</ele>
        <time>2016-07-23T11:38:52Z</time>
      </trkpt>
      <trkpt lat="42.54438" lon="0.16123">
        <ele>653.4</ele>
        <time>2016-07-23T11:38:53Z</time>
      </trkpt>
      <trkpt lat="42.54433" lon="0.16122">
        <ele>653.5</ele>
        <time>2016-07-23T11:38:54Z</time>
      </trkpt>
      <trkpt lat="42.54427" lon="0.16121">
        <ele>653.6</ele>
        <time>2016-07-23T11:38:55Z</time>
      </trkpt>
      <trkpt lat="42.54422" lon="0.16119">
        <ele>653.7</ele>
        <time>2016-07-23T11:38:56Z</time>
      </trkpt>
      <trkpt lat="42.54416" lon="0.16116">
        <ele>653.7</ele>
        <time>2016-07-23T11:38:57Z</time>
      </trkpt>
      <trkpt lat="42.54411" lon="0.16113">
        <ele>653.7</ele>
        <time>2016-07-23T11:38:58Z</time>
      </trkpt>
      <trkpt lat="42.54406" lon="0.16111">
        <ele>653.6</ele>
        <time>2016-07-23T11:38:59Z</time>
      </trkpt>
      <trkpt lat="42.54402" lon="0.16109">
        <ele>653.6</ele>
        <time>2016-07-23T11:39:00Z</time>
      </trkpt>
      <trkpt lat="42.54398" lon="0.16109">
        <ele>653.7</ele>
        <time>2016-07-23T11:39:01Z</time>
      </trkpt>
      <trkpt lat="42.54393" lon="0.16109">
        <ele>653.8</ele>
        <time>2016-07-23T11:39:02Z</time>
      </trkpt>
      <trkpt lat="42.54389" lon="0.16109">
        <ele>653.8</ele>
        <time>2016-07-23T11:39:03Z</time>
      </trkpt>
      <trkpt lat="42.54385" lon="0.16109">
        <ele>653.9</ele>
        <time>2016-07-23T11:39:04Z</time>
      </trkpt>
      <trkpt lat="42.5438" lon="0.16108">
        <ele>653.9</ele>
        <time>2016-07-23T11:39:05Z</time>
      </trkpt>
      <trkpt lat="42.54376" lon="0.16105">
        <ele>653.8</ele>
        <time>2016-07-23T11:39:06Z</time>
      </trkpt>
      <trkpt lat="42.54372" lon="0.16102">
        <ele>653.8</ele>
        <time>2016-07-23T11:39:07Z</time>
      </trkpt>
      <trkpt lat="42.54367" lon="0.16099">
        <ele>653.7</ele>
        <time>2016-07-23T11:39:08Z</time>
      </trkpt>
      <trkpt lat="42.54362" lon="0.16097">
        <ele>653.8</ele>
        <time>2016-07-23T11:39:09Z</time>
      </trkpt>
      <trkpt lat="42.54356" lon="0.16096">
        <ele>653.9</ele>
        <time>2016-07-23T11:39:10Z</time>
      </trkpt>
      <trkpt lat="42.5435" lon="0.16095">
        <ele>654</ele>
        <time>2016-07-23T11:39:11Z</time>
      </trkpt>
      <trkpt lat="42.54345" lon="0.16094">
        <ele>654.1</ele>
        <time>2016-07-23T11:39:12Z</time>
      </trkpt>
      <trkpt lat="42.5434" lon="0.16092">
        <ele>654.1</ele>
        <time>2016-07-23T11:39:13Z</time>
      </trkpt>
      <trkpt lat="42.54334" lon="0.16091">
        <ele>654.1</ele>
        <time>2016-07-23T11:39:14Z</time>
      </trkpt>
      <trkpt lat="42.54329" lon="0.1609">
        <ele>654.1</ele>
        <time>2016-07-23T11:39:15Z</time>
      </trkpt>
      <trkpt lat="42.54324" lon="0.16091">
        <ele>654.4</ele>
        <time>2016-07-23T11:39:16Z</time>
      </trkpt>
      <trkpt lat="42.5432" lon="0.16093">
        <ele>654.8</ele>
        <time>2016-07-23T11:39:17Z</time>
      </trkpt>
      <trkpt lat="42.54318" lon="0.16097">
        <ele>655.4</ele>
        <time>2016-07-23T11:39:18Z</time>
      </trkpt>
      <trkpt lat="42.54317" lon="0.16101">
        <ele>655.9</ele>
        <time>2016-07-23T11:39:19Z</time>
      </trkpt>
      <trkpt lat="42.54316" lon="0.16105">
        <ele>656.5</ele>
        <time>2016-07-23T11:39:21Z</time>
      </trkpt>
      <trkpt lat="42.54315" lon="0.16101">
        <ele>656</ele>
        <time>2016-07-23T11:39:44Z</time>
      </trkpt>
      <trkpt lat="42.54313" lon="0.16098">
        <ele>655.7</ele>
        <time>2016-07-23T11:39:47Z</time>
      </trkpt>
      <trkpt lat="42.5431" lon="0.16095">
        <ele>655.3</ele>
        <time>2016-07-23T11:39:50Z</time>
      </trkpt>
      <trkpt lat="42.54305" lon="0.16093">
        <ele>655.1</ele>
        <time>2016-07-23T11:39:52Z</time>
      </trkpt>
      <trkpt lat="42.543" lon="0.1609">
        <ele>654.9</ele>
        <time>2016-07-23T11:39:54Z</time>
      </trkpt>
      <trkpt lat="42.54297" lon="0.16089">
        <ele>654.8</ele>
        <time>2016-07-23T11:39:55Z</time>
      </trkpt>
      <trkpt lat="42.54294" lon="0.16087">
        <ele>654.6</ele>
        <time>2016-07-23T11:39:56Z</time>
      </trkpt>
      <trkpt lat="42.54291" lon="0.16086">
        <ele>654.7</ele>
        <time>2016-07-23T11:39:57Z</time>
      </trkpt>
      <trkpt lat="42.54287" lon="0.16084">
        <ele>655.1</ele>
        <time>2016-07-23T11:39:58Z</time>
      </trkpt>
      <trkpt lat="42.54283" lon="0.16082">
        <ele>655.6</ele>
        <time>2016-07-23T11:39:59Z</time>
      </trkpt>
      <trkpt lat="42.54279" lon="0.16079">
        <ele>655.8</ele>
        <time>2016-07-23T11:40:00Z</time>
      </trkpt>
      <trkpt lat="42.54275" lon="0.16076">
        <ele>655.7</ele>
        <time>2016-07-23T11:40:01Z</time>
      </trkpt>
      <trkpt lat="42.54271" lon="0.16072">
        <ele>655.5</ele>
        <time>2016-07-23T11:40:02Z</time>
      </trkpt>
      <trkpt lat="42.54266" lon="0.16068">
        <ele>655.4</ele>
        <time>2016-07-23T11:40:03Z</time>
      </trkpt>
      <trkpt lat="42.54261" lon="0.16065">
        <ele>655.3</ele>
        <time>2016-07-23T11:40:04Z</time>
      </trkpt>
      <trkpt lat="42.54256" lon="0.16062">
        <ele>655.3</ele>
        <time>2016-07-23T11:40:05Z</time>
      </trkpt>
      <trkpt lat="42.54251" lon="0.1606">
        <ele>655.2</ele>
        <time>2016-07-23T11:40:06Z</time>
      </trkpt>
      <trkpt lat="42.54246" lon="0.16058">
        <ele>655.3</ele>
        <time>2016-07-23T11:40:07Z</time>
      </trkpt>
      <trkpt lat="42.54241" lon="0.16057">
        <ele>655.2</ele>
        <time>2016-07-23T11:40:08Z</time>
      </trkpt>
      <trkpt lat="42.54236" lon="0.16055">
        <ele>655.1</ele>
        <time>2016-07-23T11:40:09Z</time>
      </trkpt>
      <trkpt lat="42.54232" lon="0.16053">
        <ele>654.9</ele>
        <time>2016-07-23T11:40:10Z</time>
      </trkpt>
      <trkpt lat="42.54228" lon="0.16051">
        <ele>654.4</ele>
        <time>2016-07-23T11:40:11Z</time>
      </trkpt>
      <trkpt lat="42.54224" lon="0.16048">
        <ele>653.8</ele>
        <time>2016-07-23T11:40:12Z</time>
      </trkpt>
      <trkpt lat="42.5422" lon="0.16046">
        <ele>653.1</ele>
        <time>2016-07-23T11:40:13Z</time>
      </trkpt>
      <trkpt lat="42.54216" lon="0.16044">
        <ele>652.5</ele>
        <time>2016-07-23T11:40:14Z</time>
      </trkpt>
      <trkpt lat="42.54212" lon="0.16042">
        <ele>652</ele>
        <time>2016-07-23T11:40:15Z</time>
      </trkpt>
      <trkpt lat="42.54207" lon="0.16041">
        <ele>652.1</ele>
        <time>2016-07-23T11:40:16Z</time>
      </trkpt>
      <trkpt lat="42.54202" lon="0.16039">
        <ele>652.3</ele>
        <time>2016-07-23T11:40:17Z</time>
      </trkpt>
      <trkpt lat="42.54198" lon="0.16037">
        <ele>652.5</ele>
        <time>2016-07-23T11:40:18Z</time>
      </trkpt>
      <trkpt lat="42.54193" lon="0.16037">
        <ele>652.7</ele>
        <time>2016-07-23T11:40:19Z</time>
      </trkpt>
      <trkpt lat="42.54189" lon="0.16036">
        <ele>652.9</ele>
        <time>2016-07-23T11:40:20Z</time>
      </trkpt>
      <trkpt lat="42.54185" lon="0.16035">
        <ele>653.1</ele>
        <time>2016-07-23T11:40:21Z</time>
      </trkpt>
      <trkpt lat="42.54182" lon="0.16035">
        <ele>653.3</ele>
        <time>2016-07-23T11:40:22Z</time>
      </trkpt>
      <trkpt lat="42.54178" lon="0.16034">
        <ele>653.4</ele>
        <time>2016-07-23T11:40:23Z</time>
      </trkpt>
      <trkpt lat="42.54175" lon="0.16033">
        <ele>653.5</ele>
        <time>2016-07-23T11:40:24Z</time>
      </trkpt>
      <trkpt lat="42.54172" lon="0.16033">
        <ele>653.6</ele>
        <time>2016-07-23T11:40:25Z</time>
      </trkpt>
      <trkpt lat="42.54169" lon="0.16033">
        <ele>653.8</ele>
        <time>2016-07-23T11:40:26Z</time>
      </trkpt>
      <trkpt lat="42.54166" lon="0.16033">
        <ele>653.9</ele>
        <time>2016-07-23T11:40:27Z</time>
      </trkpt>
      <trkpt lat="42.54163" lon="0.16032">
        <ele>654</ele>
        <time>2016-07-23T11:40:28Z</time>
      </trkpt>
      <trkpt lat="42.54159" lon="0.16031">
        <ele>654.1</ele>
        <time>2016-07-23T11:40:29Z</time>
      </trkpt>
      <trkpt lat="42.54156" lon="0.1603">
        <ele>654.1</ele>
        <time>2016-07-23T11:40:30Z</time>
      </trkpt>
      <trkpt lat="42.54153" lon="0.16028">
        <ele>654.1</ele>
        <time>2016-07-23T11:40:31Z</time>
      </trkpt>
      <trkpt lat="42.5415" lon="0.16027">
        <ele>654.1</ele>
        <time>2016-07-23T11:40:32Z</time>
      </trkpt>
      <trkpt lat="42.54147" lon="0.16025">
        <ele>654.1</ele>
        <time>2016-07-23T11:40:33Z</time>
      </trkpt>
      <trkpt lat="42.54143" lon="0.16024">
        <ele>654.1</ele>
        <time>2016-07-23T11:40:34Z</time>
      </trkpt>
      <trkpt lat="42.54139" lon="0.16023">
        <ele>654.1</ele>
        <time>2016-07-23T11:40:35Z</time>
      </trkpt>
      <trkpt lat="42.54135" lon="0.16022">
        <ele>654.1</ele>
        <time>2016-07-23T11:40:36Z</time>
      </trkpt>
      <trkpt lat="42.54131" lon="0.16021">
        <ele>654</ele>
        <time>2016-07-23T11:40:37Z</time>
      </trkpt>
      <trkpt lat="42.54129" lon="0.16019">
        <ele>653.9</ele>
        <time>2016-07-23T11:40:38Z</time>
      </trkpt>
      <trkpt lat="42.54125" lon="0.16018">
        <ele>653.8</ele>
        <time>2016-07-23T11:40:40Z</time>
      </trkpt>
      <trkpt lat="42.54129" lon="0.16015">
        <ele>653.4</ele>
        <time>2016-07-23T11:41:12Z</time>
      </trkpt>
      <trkpt lat="42.54127" lon="0.16011">
        <ele>653</ele>
        <time>2016-07-23T11:41:15Z</time>
      </trkpt>
      <trkpt lat="42.54122" lon="0.1601">
        <ele>653.4</ele>
        <time>2016-07-23T11:41:17Z</time>
      </trkpt>
      <trkpt lat="42.54118" lon="0.16009">
        <ele>654</ele>
        <time>2016-07-23T11:41:18Z</time>
      </trkpt>
      <trkpt lat="42.54113" lon="0.16008">
        <ele>654.6</ele>
        <time>2016-07-23T11:41:19Z</time>
      </trkpt>
      <trkpt lat="42.54108" lon="0.16006">
        <ele>655.1</ele>
        <time>2016-07-23T11:41:20Z</time>
      </trkpt>
      <trkpt lat="42.54104" lon="0.16004">
        <ele>655.5</ele>
        <time>2016-07-23T11:41:21Z</time>
      </trkpt>
      <trkpt lat="42.54099" lon="0.16002">
        <ele>656</ele>
        <time>2016-07-23T11:41:22Z</time>
      </trkpt>
      <trkpt lat="42.54091" lon="0.16001">
        <ele>656.9</ele>
        <time>2016-07-23T11:41:23Z</time>
      </trkpt>
      <trkpt lat="42.54087" lon="0.15997">
        <ele>656.8</ele>
        <time>2016-07-23T11:41:24Z</time>
      </trkpt>
      <trkpt lat="42.54082" lon="0.15993">
        <ele>656.7</ele>
        <time>2016-07-23T11:41:25Z</time>
      </trkpt>
      <trkpt lat="42.54077" lon="0.15991">
        <ele>656.8</ele>
        <time>2016-07-23T11:41:26Z</time>
      </trkpt>
      <trkpt lat="42.54072" lon="0.15988">
        <ele>656.8</ele>
        <time>2016-07-23T11:41:27Z</time>
      </trkpt>
      <trkpt lat="42.54068" lon="0.15985">
        <ele>656.4</ele>
        <time>2016-07-23T11:41:28Z</time>
      </trkpt>
      <trkpt lat="42.54065" lon="0.15983">
        <ele>656.2</ele>
        <time>2016-07-23T11:41:29Z</time>
      </trkpt>
      <trkpt lat="42.54062" lon="0.15981">
        <ele>656.1</ele>
        <time>2016-07-23T11:41:30Z</time>
      </trkpt>
      <trkpt lat="42.54058" lon="0.15981">
        <ele>656.4</ele>
        <time>2016-07-23T11:41:31Z</time>
      </trkpt>
      <trkpt lat="42.54055" lon="0.15981">
        <ele>656.8</ele>
        <time>2016-07-23T11:41:32Z</time>
      </trkpt>
      <trkpt lat="42.54052" lon="0.15982">
        <ele>657.6</ele>
        <time>2016-07-23T11:41:33Z</time>
      </trkpt>
      <trkpt lat="42.5405" lon="0.15986">
        <ele>658.9</ele>
        <time>2016-07-23T11:41:35Z</time>
      </trkpt>
      <trkpt lat="42.54047" lon="0.15985">
        <ele>658.9</ele>
        <time>2016-07-23T11:41:55Z</time>
      </trkpt>
      <trkpt lat="42.54044" lon="0.15983">
        <ele>658.8</ele>
        <time>2016-07-23T11:42:01Z</time>
      </trkpt>
      <trkpt lat="42.54041" lon="0.15981">
        <ele>658.5</ele>
        <time>2016-07-23T11:42:04Z</time>
      </trkpt>
      <trkpt lat="42.54038" lon="0.15981">
        <ele>659</ele>
        <time>2016-07-23T11:42:06Z</time>
      </trkpt>
      <trkpt lat="42.54034" lon="0.1598">
        <ele>659.8</ele>
        <time>2016-07-23T11:42:09Z</time>
      </trkpt>
      <trkpt lat="42.54029" lon="0.1598">
        <ele>660.7</ele>
        <time>2016-07-23T11:42:11Z</time>
      </trkpt>
      <trkpt lat="42.54023" lon="0.15979">
        <ele>661.4</ele>
        <time>2016-07-23T11:42:13Z</time>
      </trkpt>
      <trkpt lat="42.54018" lon="0.15978">
        <ele>662.2</ele>
        <time>2016-07-23T11:42:15Z</time>
      </trkpt>
      <trkpt lat="42.54013" lon="0.15978">
        <ele>663.3</ele>
        <time>2016-07-23T11:42:17Z</time>
      </trkpt>
      <trkpt lat="42.5401" lon="0.15978">
        <ele>663.9</ele>
        <time>2016-07-23T11:42:18Z</time>
      </trkpt>
      <trkpt lat="42.54005" lon="0.15977">
        <ele>664.8</ele>
        <time>2016-07-23T11:42:20Z</time>
      </trkpt>
      <trkpt lat="42.54" lon="0.15976">
        <ele>665.5</ele>
        <time>2016-07-23T11:42:22Z</time>
      </trkpt>
      <trkpt lat="42.53996" lon="0.15975">
        <ele>666</ele>
        <time>2016-07-23T11:42:24Z</time>
      </trkpt>
      <trkpt lat="42.53992" lon="0.15974">
        <ele>666.4</ele>
        <time>2016-07-23T11:42:26Z</time>
      </trkpt>
      <trkpt lat="42.53988" lon="0.15974">
        <ele>667.1</ele>
        <time>2016-07-23T11:42:28Z</time>
      </trkpt>
      <trkpt lat="42.53985" lon="0.15973">
        <ele>667.4</ele>
        <time>2016-07-23T11:42:29Z</time>
      </trkpt>
      <trkpt lat="42.53981" lon="0.15972">
        <ele>667.7</ele>
        <time>2016-07-23T11:42:30Z</time>
      </trkpt>
      <trkpt lat="42.53978" lon="0.15971">
        <ele>667.9</ele>
        <time>2016-07-23T11:42:31Z</time>
      </trkpt>
      <trkpt lat="42.53975" lon="0.1597">
        <ele>668.4</ele>
        <time>2016-07-23T11:42:33Z</time>
      </trkpt>
      <trkpt lat="42.53974" lon="0.15967">
        <ele>667.2</ele>
        <time>2016-07-23T11:42:40Z</time>
      </trkpt>
      <trkpt lat="42.53974" lon="0.15971">
        <ele>668.8</ele>
        <time>2016-07-23T11:42:54Z</time>
      </trkpt>
      <trkpt lat="42.53971" lon="0.15973">
        <ele>670.2</ele>
        <time>2016-07-23T11:42:59Z</time>
      </trkpt>
      <trkpt lat="42.53968" lon="0.15972">
        <ele>670.6</ele>
        <time>2016-07-23T11:43:03Z</time>
      </trkpt>
      <trkpt lat="42.53965" lon="0.15972">
        <ele>671</ele>
        <time>2016-07-23T11:43:07Z</time>
      </trkpt>
      <trkpt lat="42.53962" lon="0.15971">
        <ele>671.3</ele>
        <time>2016-07-23T11:43:09Z</time>
      </trkpt>
      <trkpt lat="42.53959" lon="0.15969">
        <ele>671.2</ele>
        <time>2016-07-23T11:43:11Z</time>
      </trkpt>
      <trkpt lat="42.53955" lon="0.15967">
        <ele>671.2</ele>
        <time>2016-07-23T11:43:13Z</time>
      </trkpt>
      <trkpt lat="42.53951" lon="0.15965">
        <ele>671</ele>
        <time>2016-07-23T11:43:15Z</time>
      </trkpt>
      <trkpt lat="42.53948" lon="0.15963">
        <ele>670.8</ele>
        <time>2016-07-23T11:43:17Z</time>
      </trkpt>
      <trkpt lat="42.53945" lon="0.15961">
        <ele>670.8</ele>
        <time>2016-07-23T11:43:19Z</time>
      </trkpt>
      <trkpt lat="42.53941" lon="0.1596">
        <ele>670.9</ele>
        <time>2016-07-23T11:43:21Z</time>
      </trkpt>
      <trkpt lat="42.53937" lon="0.15957">
        <ele>670.7</ele>
        <time>2016-07-23T11:43:23Z</time>
      </trkpt>
      <trkpt lat="42.53933" lon="0.15952">
        <ele>670.2</ele>
        <time>2016-07-23T11:43:25Z</time>
      </trkpt>
      <trkpt lat="42.53931" lon="0.15949">
        <ele>670</ele>
        <time>2016-07-23T11:43:26Z</time>
      </trkpt>
      <trkpt lat="42.53929" lon="0.15947">
        <ele>669.9</ele>
        <time>2016-07-23T11:43:27Z</time>
      </trkpt>
      <trkpt lat="42.53926" lon="0.15945">
        <ele>669.8</ele>
        <time>2016-07-23T11:43:28Z</time>
      </trkpt>
      <trkpt lat="42.53924" lon="0.15942">
        <ele>669.6</ele>
        <time>2016-07-23T11:43:29Z</time>
      </trkpt>
      <trkpt lat="42.53921" lon="0.1594">
        <ele>669.4</ele>
        <time>2016-07-23T11:43:30Z</time>
      </trkpt>
      <trkpt lat="42.53918" lon="0.15938">
        <ele>669.3</ele>
        <time>2016-07-23T11:43:31Z</time>
      </trkpt>
      <trkpt lat="42.53915" lon="0.15935">
        <ele>669.2</ele>
        <time>2016-07-23T11:43:32Z</time>
      </trkpt>
      <trkpt lat="42.53911" lon="0.15933">
        <ele>669.1</ele>
        <time>2016-07-23T11:43:33Z</time>
      </trkpt>
      <trkpt lat="42.53908" lon="0.1593">
        <ele>668.9</ele>
        <time>2016-07-23T11:43:34Z</time>
      </trkpt>
      <trkpt lat="42.53904" lon="0.15927">
        <ele>668.7</ele>
        <time>2016-07-23T11:43:35Z</time>
      </trkpt>
      <trkpt lat="42.539" lon="0.15925">
        <ele>668.5</ele>
        <time>2016-07-23T11:43:36Z</time>
      </trkpt>
      <trkpt lat="42.53896" lon="0.15922">
        <ele>668.3</ele>
        <time>2016-07-23T11:43:37Z</time>
      </trkpt>
      <trkpt lat="42.53891" lon="0.15918">
        <ele>667.8</ele>
        <time>2016-07-23T11:43:38Z</time>
      </trkpt>
      <trkpt lat="42.53887" lon="0.15914">
        <ele>667.2</ele>
        <time>2016-07-23T11:43:39Z</time>
      </trkpt>
      <trkpt lat="42.53883" lon="0.1591">
        <ele>666.5</ele>
        <time>2016-07-23T11:43:40Z</time>
      </trkpt>
      <trkpt lat="42.53878" lon="0.15906">
        <ele>665.8</ele>
        <time>2016-07-23T11:43:41Z</time>
      </trkpt>
      <trkpt lat="42.53874" lon="0.15903">
        <ele>664.9</ele>
        <time>2016-07-23T11:43:42Z</time>
      </trkpt>
      <trkpt lat="42.5387" lon="0.15899">
        <ele>663.5</ele>
        <time>2016-07-23T11:43:43Z</time>
      </trkpt>
      <trkpt lat="42.53866" lon="0.15897">
        <ele>662.3</ele>
        <time>2016-07-23T11:43:44Z</time>
      </trkpt>
      <trkpt lat="42.53863" lon="0.15893">
        <ele>661.1</ele>
        <time>2016-07-23T11:43:46Z</time>
      </trkpt>
      <trkpt lat="42.53862" lon="0.1589">
        <ele>659.9</ele>
        <time>2016-07-23T11:43:48Z</time>
      </trkpt>
      <trkpt lat="42.53861" lon="0.15886">
        <ele>658.6</ele>
        <time>2016-07-23T11:43:49Z</time>
      </trkpt>
      <trkpt lat="42.53857" lon="0.15881">
        <ele>656.8</ele>
        <time>2016-07-23T11:43:50Z</time>
      </trkpt>
      <trkpt lat="42.53853" lon="0.15876">
        <ele>655</ele>
        <time>2016-07-23T11:43:51Z</time>
      </trkpt>
      <trkpt lat="42.53849" lon="0.15872">
        <ele>654.9</ele>
        <time>2016-07-23T11:43:52Z</time>
      </trkpt>
      <trkpt lat="42.53843" lon="0.15867">
        <ele>655.2</ele>
        <time>2016-07-23T11:43:53Z</time>
      </trkpt>
      <trkpt lat="42.53838" lon="0.15863">
        <ele>655.4</ele>
        <time>2016-07-23T11:43:54Z</time>
      </trkpt>
      <trkpt lat="42.53832" lon="0.1586">
        <ele>655.6</ele>
        <time>2016-07-23T11:43:55Z</time>
      </trkpt>
      <trkpt lat="42.53827" lon="0.15857">
        <ele>655.8</ele>
        <time>2016-07-23T11:43:56Z</time>
      </trkpt>
      <trkpt lat="42.53822" lon="0.15855">
        <ele>655.8</ele>
        <time>2016-07-23T11:43:57Z</time>
      </trkpt>
      <trkpt lat="42.53815" lon="0.15853">
        <ele>655.7</ele>
        <time>2016-07-23T11:43:58Z</time>
      </trkpt>
      <trkpt lat="42.5381" lon="0.15852">
        <ele>655.5</ele>
        <time>2016-07-23T11:43:59Z</time>
      </trkpt>
      <trkpt lat="42.53805" lon="0.15852">
        <ele>655.4</ele>
        <time>2016-07-23T11:44:00Z</time>
      </trkpt>
      <trkpt lat="42.538" lon="0.15851">
        <ele>655.3</ele>
        <time>2016-07-23T11:44:01Z</time>
      </trkpt>
      <trkpt lat="42.53796" lon="0.1585">
        <ele>655.1</ele>
        <time>2016-07-23T11:44:02Z</time>
      </trkpt>
      <trkpt lat="42.53791" lon="0.1585">
        <ele>654.9</ele>
        <time>2016-07-23T11:44:03Z</time>
      </trkpt>
      <trkpt lat="42.53786" lon="0.1585">
        <ele>654.5</ele>
        <time>2016-07-23T11:44:04Z</time>
      </trkpt>
      <trkpt lat="42.53781" lon="0.15851">
        <ele>654.1</ele>
        <time>2016-07-23T11:44:05Z</time>
      </trkpt>
      <trkpt lat="42.53776" lon="0.15852">
        <ele>653.7</ele>
        <time>2016-07-23T11:44:06Z</time>
      </trkpt>
      <trkpt lat="42.5377" lon="0.15853">
        <ele>653.1</ele>
        <time>2016-07-23T11:44:07Z</time>
      </trkpt>
      <trkpt lat="42.53764" lon="0.15854">
        <ele>652.5</ele>
        <time>2016-07-23T11:44:08Z</time>
      </trkpt>
      <trkpt lat="42.53758" lon="0.15855">
        <ele>652</ele>
        <time>2016-07-23T11:44:09Z</time>
      </trkpt>
      <trkpt lat="42.53753" lon="0.15856">
        <ele>651.5</ele>
        <time>2016-07-23T11:44:10Z</time>
      </trkpt>
      <trkpt lat="42.53748" lon="0.15857">
        <ele>651</ele>
        <time>2016-07-23T11:44:11Z</time>
      </trkpt>
      <trkpt lat="42.53744" lon="0.15859">
        <ele>650.4</ele>
        <time>2016-07-23T11:44:12Z</time>
      </trkpt>
      <trkpt lat="42.53739" lon="0.15861">
        <ele>649.8</ele>
        <time>2016-07-23T11:44:13Z</time>
      </trkpt>
      <trkpt lat="42.53735" lon="0.15862">
        <ele>649.2</ele>
        <time>2016-07-23T11:44:14Z</time>
      </trkpt>
      <trkpt lat="42.5373" lon="0.15862">
        <ele>648.9</ele>
        <time>2016-07-23T11:44:15Z</time>
      </trkpt>
      <trkpt lat="42.53725" lon="0.15862">
        <ele>648.6</ele>
        <time>2016-07-23T11:44:16Z</time>
      </trkpt>
      <trkpt lat="42.5372" lon="0.15862">
        <ele>648.3</ele>
        <time>2016-07-23T11:44:17Z</time>
      </trkpt>
      <trkpt lat="42.53714" lon="0.15862">
        <ele>647.9</ele>
        <time>2016-07-23T11:44:18Z</time>
      </trkpt>
      <trkpt lat="42.53708" lon="0.15862">
        <ele>647.5</ele>
        <time>2016-07-23T11:44:19Z</time>
      </trkpt>
      <trkpt lat="42.53703" lon="0.15863">
        <ele>647.2</ele>
        <time>2016-07-23T11:44:20Z</time>
      </trkpt>
      <trkpt lat="42.53697" lon="0.15865">
        <ele>646.8</ele>
        <time>2016-07-23T11:44:21Z</time>
      </trkpt>
      <trkpt lat="42.53692" lon="0.15867">
        <ele>646.3</ele>
        <time>2016-07-23T11:44:22Z</time>
      </trkpt>
      <trkpt lat="42.53686" lon="0.15869">
        <ele>645.9</ele>
        <time>2016-07-23T11:44:23Z</time>
      </trkpt>
      <trkpt lat="42.53681" lon="0.15871">
        <ele>645.5</ele>
        <time>2016-07-23T11:44:24Z</time>
      </trkpt>
      <trkpt lat="42.53676" lon="0.15872">
        <ele>645.2</ele>
        <time>2016-07-23T11:44:25Z</time>
      </trkpt>
      <trkpt lat="42.53671" lon="0.15873">
        <ele>645</ele>
        <time>2016-07-23T11:44:26Z</time>
      </trkpt>
      <trkpt lat="42.53666" lon="0.15874">
        <ele>644.7</ele>
        <time>2016-07-23T11:44:27Z</time>
      </trkpt>
      <trkpt lat="42.53661" lon="0.15876">
        <ele>644.6</ele>
        <time>2016-07-23T11:44:28Z</time>
      </trkpt>
      <trkpt lat="42.53656" lon="0.15879">
        <ele>645</ele>
        <time>2016-07-23T11:44:29Z</time>
      </trkpt>
      <trkpt lat="42.53652" lon="0.15881">
        <ele>645.5</ele>
        <time>2016-07-23T11:44:30Z</time>
      </trkpt>
      <trkpt lat="42.53647" lon="0.15885">
        <ele>646.1</ele>
        <time>2016-07-23T11:44:31Z</time>
      </trkpt>
      <trkpt lat="42.53643" lon="0.15888">
        <ele>646.6</ele>
        <time>2016-07-23T11:44:32Z</time>
      </trkpt>
      <trkpt lat="42.53638" lon="0.15891">
        <ele>647.2</ele>
        <time>2016-07-23T11:44:33Z</time>
      </trkpt>
      <trkpt lat="42.53634" lon="0.15895">
        <ele>647.8</ele>
        <time>2016-07-23T11:44:34Z</time>
      </trkpt>
      <trkpt lat="42.53631" lon="0.15898">
        <ele>648.4</ele>
        <time>2016-07-23T11:44:35Z</time>
      </trkpt>
      <trkpt lat="42.53627" lon="0.15901">
        <ele>649</ele>
        <time>2016-07-23T11:44:36Z</time>
      </trkpt>
      <trkpt lat="42.53624" lon="0.15904">
        <ele>649.6</ele>
        <time>2016-07-23T11:44:37Z</time>
      </trkpt>
      <trkpt lat="42.53621" lon="0.15906">
        <ele>650.3</ele>
        <time>2016-07-23T11:44:38Z</time>
      </trkpt>
      <trkpt lat="42.53617" lon="0.15907">
        <ele>651.1</ele>
        <time>2016-07-23T11:44:40Z</time>
      </trkpt>
      <trkpt lat="42.53614" lon="0.15908">
        <ele>651.6</ele>
        <time>2016-07-23T11:44:41Z</time>
      </trkpt>
      <trkpt lat="42.5361" lon="0.15911">
        <ele>652.8</ele>
        <time>2016-07-23T11:44:43Z</time>
      </trkpt>
      <trkpt lat="42.53608" lon="0.15914">
        <ele>653.7</ele>
        <time>2016-07-23T11:44:45Z</time>
      </trkpt>
      <trkpt lat="42.53608" lon="0.15915">
        <ele>653.7</ele>
        <time>2016-07-23T11:44:50Z</time>
      </trkpt>
      <trkpt lat="42.53609" lon="0.15915">
        <ele>653.7</ele>
        <time>2016-07-23T11:44:53Z</time>
      </trkpt>
      <trkpt lat="42.53609" lon="0.15915">
        <ele>653.7</ele>
        <time>2016-07-23T11:46:24Z</time>
      </trkpt>
      <trkpt lat="42.53609" lon="0.15915">
        <ele>653.8</ele>
        <time>2016-07-23T11:46:25Z</time>
      </trkpt>
      <trkpt lat="42.53605" lon="0.15913">
        <ele>653.7</ele>
        <time>2016-07-23T11:46:26Z</time>
      </trkpt>
      <trkpt lat="42.53601" lon="0.15911">
        <ele>653.8</ele>
        <time>2016-07-23T11:46:27Z</time>
      </trkpt>
      <trkpt lat="42.53596" lon="0.1591">
        <ele>653.9</ele>
        <time>2016-07-23T11:46:28Z</time>
      </trkpt>
      <trkpt lat="42.53593" lon="0.15908">
        <ele>653.7</ele>
        <time>2016-07-23T11:46:29Z</time>
      </trkpt>
      <trkpt lat="42.5359" lon="0.15905">
        <ele>653.3</ele>
        <time>2016-07-23T11:46:30Z</time>
      </trkpt>
      <trkpt lat="42.53587" lon="0.15902">
        <ele>652.6</ele>
        <time>2016-07-23T11:46:31Z</time>
      </trkpt>
      <trkpt lat="42.53582" lon="0.15896">
        <ele>651.4</ele>
        <time>2016-07-23T11:46:32Z</time>
      </trkpt>
      <trkpt lat="42.53578" lon="0.15895">
        <ele>651.3</ele>
        <time>2016-07-23T11:46:33Z</time>
      </trkpt>
      <trkpt lat="42.53575" lon="0.15893">
        <ele>650.9</ele>
        <time>2016-07-23T11:46:34Z</time>
      </trkpt>
      <trkpt lat="42.5357" lon="0.15889">
        <ele>650.1</ele>
        <time>2016-07-23T11:46:35Z</time>
      </trkpt>
      <trkpt lat="42.53566" lon="0.15887">
        <ele>649.4</ele>
        <time>2016-07-23T11:46:36Z</time>
      </trkpt>
      <trkpt lat="42.53562" lon="0.15883">
        <ele>648.2</ele>
        <time>2016-07-23T11:46:37Z</time>
      </trkpt>
      <trkpt lat="42.53557" lon="0.1588">
        <ele>647.4</ele>
        <time>2016-07-23T11:46:38Z</time>
      </trkpt>
      <trkpt lat="42.53553" lon="0.15878">
        <ele>647</ele>
        <time>2016-07-23T11:46:39Z</time>
      </trkpt>
      <trkpt lat="42.53548" lon="0.15876">
        <ele>646.3</ele>
        <time>2016-07-23T11:46:40Z</time>
      </trkpt>
      <trkpt lat="42.53544" lon="0.15874">
        <ele>646</ele>
        <time>2016-07-23T11:46:41Z</time>
      </trkpt>
      <trkpt lat="42.53539" lon="0.15872">
        <ele>646.4</ele>
        <time>2016-07-23T11:46:42Z</time>
      </trkpt>
      <trkpt lat="42.53535" lon="0.1587">
        <ele>646.8</ele>
        <time>2016-07-23T11:46:43Z</time>
      </trkpt>
      <trkpt lat="42.53532" lon="0.15867">
        <ele>647.2</ele>
        <time>2016-07-23T11:46:44Z</time>
      </trkpt>
      <trkpt lat="42.53528" lon="0.15865">
        <ele>647.6</ele>
        <time>2016-07-23T11:46:45Z</time>
      </trkpt>
      <trkpt lat="42.53524" lon="0.15863">
        <ele>648</ele>
        <time>2016-07-23T11:46:46Z</time>
      </trkpt>
      <trkpt lat="42.53519" lon="0.15861">
        <ele>648.3</ele>
        <time>2016-07-23T11:46:47Z</time>
      </trkpt>
      <trkpt lat="42.53515" lon="0.15859">
        <ele>648.6</ele>
        <time>2016-07-23T11:46:48Z</time>
      </trkpt>
      <trkpt lat="42.5351" lon="0.15858">
        <ele>649</ele>
        <time>2016-07-23T11:46:49Z</time>
      </trkpt>
      <trkpt lat="42.53504" lon="0.15857">
        <ele>649.3</ele>
        <time>2016-07-23T11:46:50Z</time>
      </trkpt>
      <trkpt lat="42.53498" lon="0.15856">
        <ele>649.7</ele>
        <time>2016-07-23T11:46:51Z</time>
      </trkpt>
      <trkpt lat="42.53492" lon="0.15854">
        <ele>650</ele>
        <time>2016-07-23T11:46:52Z</time>
      </trkpt>
      <trkpt lat="42.53486" lon="0.15851">
        <ele>650.2</ele>
        <time>2016-07-23T11:46:53Z</time>
      </trkpt>
      <trkpt lat="42.53479" lon="0.15847">
        <ele>650.2</ele>
        <time>2016-07-23T11:46:54Z</time>
      </trkpt>
      <trkpt lat="42.53473" lon="0.15844">
        <ele>650.2</ele>
        <time>2016-07-23T11:46:55Z</time>
      </trkpt>
      <trkpt lat="42.53467" lon="0.15841">
        <ele>650.1</ele>
        <time>2016-07-23T11:46:56Z</time>
      </trkpt>
      <trkpt lat="42.53462" lon="0.15835">
        <ele>649.6</ele>
        <time>2016-07-23T11:46:57Z</time>
      </trkpt>
      <trkpt lat="42.53456" lon="0.15832">
        <ele>649.5</ele>
        <time>2016-07-23T11:46:58Z</time>
      </trkpt>
      <trkpt lat="42.53453" lon="0.15832">
        <ele>649.8</ele>
        <time>2016-07-23T11:46:59Z</time>
      </trkpt>
      <trkpt lat="42.53448" lon="0.1583">
        <ele>650</ele>
        <time>2016-07-23T11:47:00Z</time>
      </trkpt>
      <trkpt lat="42.53442" lon="0.15829">
        <ele>650.4</ele>
        <time>2016-07-23T11:47:01Z</time>
      </trkpt>
      <trkpt lat="42.53436" lon="0.15828">
        <ele>650.7</ele>
        <time>2016-07-23T11:47:02Z</time>
      </trkpt>
      <trkpt lat="42.5343" lon="0.15827">
        <ele>651</ele>
        <time>2016-07-23T11:47:03Z</time>
      </trkpt>
      <trkpt lat="42.53426" lon="0.15824">
        <ele>651.1</ele>
        <time>2016-07-23T11:47:04Z</time>
      </trkpt>
      <trkpt lat="42.53422" lon="0.15824">
        <ele>651.4</ele>
        <time>2016-07-23T11:47:05Z</time>
      </trkpt>
      <trkpt lat="42.53418" lon="0.15823">
        <ele>651.7</ele>
        <time>2016-07-23T11:47:06Z</time>
      </trkpt>
      <trkpt lat="42.53413" lon="0.15821">
        <ele>651.8</ele>
        <time>2016-07-23T11:47:07Z</time>
      </trkpt>
      <trkpt lat="42.53407" lon="0.15818">
        <ele>652</ele>
        <time>2016-07-23T11:47:09Z</time>
      </trkpt>
      <trkpt lat="42.53403" lon="0.15815">
        <ele>652</ele>
        <time>2016-07-23T11:47:10Z</time>
      </trkpt>
      <trkpt lat="42.53399" lon="0.15814">
        <ele>652.3</ele>
        <time>2016-07-23T11:47:11Z</time>
      </trkpt>
      <trkpt lat="42.53395" lon="0.15814">
        <ele>652.7</ele>
        <time>2016-07-23T11:47:12Z</time>
      </trkpt>
      <trkpt lat="42.53391" lon="0.15815">
        <ele>653</ele>
        <time>2016-07-23T11:47:13Z</time>
      </trkpt>
      <trkpt lat="42.53388" lon="0.15816">
        <ele>653.5</ele>
        <time>2016-07-23T11:47:14Z</time>
      </trkpt>
      <trkpt lat="42.53383" lon="0.15816">
        <ele>653.9</ele>
        <time>2016-07-23T11:47:15Z</time>
      </trkpt>
      <trkpt lat="42.53379" lon="0.15817">
        <ele>654.4</ele>
        <time>2016-07-23T11:47:16Z</time>
      </trkpt>
      <trkpt lat="42.53375" lon="0.15819">
        <ele>654.9</ele>
        <time>2016-07-23T11:47:17Z</time>
      </trkpt>
      <trkpt lat="42.53371" lon="0.1582">
        <ele>657.4</ele>
        <time>2016-07-23T11:47:18Z</time>
      </trkpt>
      <trkpt lat="42.53368" lon="0.15821">
        <ele>659.5</ele>
        <time>2016-07-23T11:47:19Z</time>
      </trkpt>
      <trkpt lat="42.53365" lon="0.15822">
        <ele>661.6</ele>
        <time>2016-07-23T11:47:20Z</time>
      </trkpt>
      <trkpt lat="42.53362" lon="0.15822">
        <ele>663.3</ele>
        <time>2016-07-23T11:47:21Z</time>
      </trkpt>
      <trkpt lat="42.5336" lon="0.15818">
        <ele>664.2</ele>
        <time>2016-07-23T11:47:25Z</time>
      </trkpt>
      <trkpt lat="42.53357" lon="0.15816">
        <ele>666.1</ele>
        <time>2016-07-23T11:47:27Z</time>
      </trkpt>
      <trkpt lat="42.53353" lon="0.15812">
        <ele>667.8</ele>
        <time>2016-07-23T11:47:29Z</time>
      </trkpt>
      <trkpt lat="42.53354" lon="0.15808">
        <ele>666.8</ele>
        <time>2016-07-23T11:47:31Z</time>
      </trkpt>
      <trkpt lat="42.53357" lon="0.15805">
        <ele>665</ele>
        <time>2016-07-23T11:47:34Z</time>
      </trkpt>
      <trkpt lat="42.53356" lon="0.15801">
        <ele>664.9</ele>
        <time>2016-07-23T11:47:42Z</time>
      </trkpt>
      <trkpt lat="42.53354" lon="0.15796">
        <ele>665.7</ele>
        <time>2016-07-23T11:47:45Z</time>
      </trkpt>
      <trkpt lat="42.53351" lon="0.1579">
        <ele>667</ele>
        <time>2016-07-23T11:47:47Z</time>
      </trkpt>
      <trkpt lat="42.53347" lon="0.15785">
        <ele>668.5</ele>
        <time>2016-07-23T11:47:49Z</time>
      </trkpt>
      <trkpt lat="42.53345" lon="0.15781">
        <ele>669.5</ele>
        <time>2016-07-23T11:47:50Z</time>
      </trkpt>
      <trkpt lat="42.53342" lon="0.15778">
        <ele>670.3</ele>
        <time>2016-07-23T11:47:51Z</time>
      </trkpt>
      <trkpt lat="42.5334" lon="0.15775">
        <ele>670.8</ele>
        <time>2016-07-23T11:47:52Z</time>
      </trkpt>
      <trkpt lat="42.53339" lon="0.15771">
        <ele>671.2</ele>
        <time>2016-07-23T11:47:53Z</time>
      </trkpt>
      <trkpt lat="42.53337" lon="0.15768">
        <ele>671.5</ele>
        <time>2016-07-23T11:47:54Z</time>
      </trkpt>
      <trkpt lat="42.53333" lon="0.15762">
        <ele>672.4</ele>
        <time>2016-07-23T11:47:56Z</time>
      </trkpt>
      <trkpt lat="42.53331" lon="0.15759">
        <ele>673.1</ele>
        <time>2016-07-23T11:47:57Z</time>
      </trkpt>
      <trkpt lat="42.53328" lon="0.15756">
        <ele>674</ele>
        <time>2016-07-23T11:47:58Z</time>
      </trkpt>
      <trkpt lat="42.53326" lon="0.15752">
        <ele>674.7</ele>
        <time>2016-07-23T11:47:59Z</time>
      </trkpt>
      <trkpt lat="42.53324" lon="0.1575">
        <ele>675.3</ele>
        <time>2016-07-23T11:48:00Z</time>
      </trkpt>
      <trkpt lat="42.53321" lon="0.15746">
        <ele>675.6</ele>
        <time>2016-07-23T11:48:02Z</time>
      </trkpt>
      <trkpt lat="42.53319" lon="0.1574">
        <ele>675.4</ele>
        <time>2016-07-23T11:48:05Z</time>
      </trkpt>
      <trkpt lat="42.53317" lon="0.15737">
        <ele>675.7</ele>
        <time>2016-07-23T11:48:06Z</time>
      </trkpt>
      <trkpt lat="42.53315" lon="0.15734">
        <ele>676</ele>
        <time>2016-07-23T11:48:07Z</time>
      </trkpt>
      <trkpt lat="42.53314" lon="0.15731">
        <ele>676.3</ele>
        <time>2016-07-23T11:48:08Z</time>
      </trkpt>
      <trkpt lat="42.53312" lon="0.15728">
        <ele>676.4</ele>
        <time>2016-07-23T11:48:09Z</time>
      </trkpt>
      <trkpt lat="42.5331" lon="0.15725">
        <ele>676.6</ele>
        <time>2016-07-23T11:48:10Z</time>
      </trkpt>
      <trkpt lat="42.53308" lon="0.15721">
        <ele>676.5</ele>
        <time>2016-07-23T11:48:11Z</time>
      </trkpt>
      <trkpt lat="42.53307" lon="0.15717">
        <ele>676.3</ele>
        <time>2016-07-23T11:48:12Z</time>
      </trkpt>
      <trkpt lat="42.53305" lon="0.15713">
        <ele>675.8</ele>
        <time>2016-07-23T11:48:13Z</time>
      </trkpt>
      <trkpt lat="42.53304" lon="0.15708">
        <ele>675</ele>
        <time>2016-07-23T11:48:14Z</time>
      </trkpt>
      <trkpt lat="42.53304" lon="0.15703">
        <ele>673.9</ele>
        <time>2016-07-23T11:48:15Z</time>
      </trkpt>
      <trkpt lat="42.53303" lon="0.15698">
        <ele>672.7</ele>
        <time>2016-07-23T11:48:16Z</time>
      </trkpt>
      <trkpt lat="42.53303" lon="0.15693">
        <ele>671.4</ele>
        <time>2016-07-23T11:48:17Z</time>
      </trkpt>
      <trkpt lat="42.53302" lon="0.15687">
        <ele>670.3</ele>
        <time>2016-07-23T11:48:18Z</time>
      </trkpt>
      <trkpt lat="42.533" lon="0.15682">
        <ele>669.4</ele>
        <time>2016-07-23T11:48:19Z</time>
      </trkpt>
      <trkpt lat="42.53298" lon="0.15677">
        <ele>668.5</ele>
        <time>2016-07-23T11:48:20Z</time>
      </trkpt>
      <trkpt lat="42.53296" lon="0.15672">
        <ele>667.5</ele>
        <time>2016-07-23T11:48:21Z</time>
      </trkpt>
      <trkpt lat="42.53295" lon="0.15667">
        <ele>666.4</ele>
        <time>2016-07-23T11:48:22Z</time>
      </trkpt>
      <trkpt lat="42.53294" lon="0.15661">
        <ele>665.1</ele>
        <time>2016-07-23T11:48:23Z</time>
      </trkpt>
      <trkpt lat="42.53293" lon="0.15656">
        <ele>663.6</ele>
        <time>2016-07-23T11:48:24Z</time>
      </trkpt>
      <trkpt lat="42.53292" lon="0.1565">
        <ele>662.1</ele>
        <time>2016-07-23T11:48:25Z</time>
      </trkpt>
      <trkpt lat="42.53291" lon="0.15646">
        <ele>661</ele>
        <time>2016-07-23T11:48:26Z</time>
      </trkpt>
      <trkpt lat="42.5329" lon="0.15642">
        <ele>660.1</ele>
        <time>2016-07-23T11:48:27Z</time>
      </trkpt>
      <trkpt lat="42.53288" lon="0.15636">
        <ele>658.6</ele>
        <time>2016-07-23T11:48:29Z</time>
      </trkpt>
      <trkpt lat="42.53287" lon="0.15632">
        <ele>657.7</ele>
        <time>2016-07-23T11:48:30Z</time>
      </trkpt>
      <trkpt lat="42.53285" lon="0.15629">
        <ele>656.9</ele>
        <time>2016-07-23T11:48:31Z</time>
      </trkpt>
      <trkpt lat="42.53284" lon="0.15625">
        <ele>656.2</ele>
        <time>2016-07-23T11:48:32Z</time>
      </trkpt>
      <trkpt lat="42.53281" lon="0.15621">
        <ele>656</ele>
        <time>2016-07-23T11:48:33Z</time>
      </trkpt>
      <trkpt lat="42.53279" lon="0.15618">
        <ele>655.7</ele>
        <time>2016-07-23T11:48:34Z</time>
      </trkpt>
      <trkpt lat="42.53277" lon="0.15614">
        <ele>655.5</ele>
        <time>2016-07-23T11:48:35Z</time>
      </trkpt>
      <trkpt lat="42.53275" lon="0.15609">
        <ele>655.1</ele>
        <time>2016-07-23T11:48:36Z</time>
      </trkpt>
      <trkpt lat="42.53273" lon="0.15603">
        <ele>654.5</ele>
        <time>2016-07-23T11:48:37Z</time>
      </trkpt>
      <trkpt lat="42.5327" lon="0.15598">
        <ele>653.9</ele>
        <time>2016-07-23T11:48:38Z</time>
      </trkpt>
      <trkpt lat="42.53267" lon="0.15593">
        <ele>653.6</ele>
        <time>2016-07-23T11:48:39Z</time>
      </trkpt>
      <trkpt lat="42.53264" lon="0.15589">
        <ele>653.4</ele>
        <time>2016-07-23T11:48:40Z</time>
      </trkpt>
      <trkpt lat="42.53262" lon="0.15586">
        <ele>653.3</ele>
        <time>2016-07-23T11:48:41Z</time>
      </trkpt>
      <trkpt lat="42.53259" lon="0.15582">
        <ele>653.2</ele>
        <time>2016-07-23T11:48:42Z</time>
      </trkpt>
      <trkpt lat="42.53257" lon="0.15579">
        <ele>653</ele>
        <time>2016-07-23T11:48:43Z</time>
      </trkpt>
      <trkpt lat="42.53255" lon="0.15576">
        <ele>652.9</ele>
        <time>2016-07-23T11:48:44Z</time>
      </trkpt>
      <trkpt lat="42.53251" lon="0.15573">
        <ele>652.7</ele>
        <time>2016-07-23T11:48:46Z</time>
      </trkpt>
      <trkpt lat="42.53248" lon="0.15568">
        <ele>652.6</ele>
        <time>2016-07-23T11:48:48Z</time>
      </trkpt>
      <trkpt lat="42.53245" lon="0.15566">
        <ele>652.6</ele>
        <time>2016-07-23T11:48:49Z</time>
      </trkpt>
      <trkpt lat="42.53243" lon="0.15564">
        <ele>652.7</ele>
        <time>2016-07-23T11:48:50Z</time>
      </trkpt>
      <trkpt lat="42.53238" lon="0.15562">
        <ele>653.1</ele>
        <time>2016-07-23T11:48:52Z</time>
      </trkpt>
      <trkpt lat="42.53233" lon="0.15559">
        <ele>653.4</ele>
        <time>2016-07-23T11:48:54Z</time>
      </trkpt>
      <trkpt lat="42.53229" lon="0.15558">
        <ele>653.9</ele>
        <time>2016-07-23T11:48:56Z</time>
      </trkpt>
      <trkpt lat="42.53225" lon="0.15559">
        <ele>655.2</ele>
        <time>2016-07-23T11:48:58Z</time>
      </trkpt>
      <trkpt lat="42.5322" lon="0.15563">
        <ele>657.1</ele>
        <time>2016-07-23T11:49:00Z</time>
      </trkpt>
      <trkpt lat="42.53217" lon="0.15567">
        <ele>658.7</ele>
        <time>2016-07-23T11:49:02Z</time>
      </trkpt>
      <trkpt lat="42.53213" lon="0.15569">
        <ele>660.3</ele>
        <time>2016-07-23T11:49:04Z</time>
      </trkpt>
      <trkpt lat="42.53209" lon="0.15571">
        <ele>661.7</ele>
        <time>2016-07-23T11:49:06Z</time>
      </trkpt>
      <trkpt lat="42.53205" lon="0.15572">
        <ele>663.5</ele>
        <time>2016-07-23T11:49:08Z</time>
      </trkpt>
      <trkpt lat="42.532" lon="0.15574">
        <ele>665.5</ele>
        <time>2016-07-23T11:49:10Z</time>
      </trkpt>
      <trkpt lat="42.53196" lon="0.15577">
        <ele>667.7</ele>
        <time>2016-07-23T11:49:12Z</time>
      </trkpt>
      <trkpt lat="42.53191" lon="0.15576">
        <ele>669.1</ele>
        <time>2016-07-23T11:49:14Z</time>
      </trkpt>
      <trkpt lat="42.53193" lon="0.1557">
        <ele>667.3</ele>
        <time>2016-07-23T11:49:22Z</time>
      </trkpt>
      <trkpt lat="42.53194" lon="0.15566">
        <ele>665.9</ele>
        <time>2016-07-23T11:49:24Z</time>
      </trkpt>
      <trkpt lat="42.53195" lon="0.15561">
        <ele>664.4</ele>
        <time>2016-07-23T11:49:26Z</time>
      </trkpt>
      <trkpt lat="42.53195" lon="0.15556">
        <ele>662.9</ele>
        <time>2016-07-23T11:49:28Z</time>
      </trkpt>
      <trkpt lat="42.53194" lon="0.15552">
        <ele>662.3</ele>
        <time>2016-07-23T11:49:30Z</time>
      </trkpt>
      <trkpt lat="42.53192" lon="0.15548">
        <ele>662</ele>
        <time>2016-07-23T11:49:32Z</time>
      </trkpt>
      <trkpt lat="42.53189" lon="0.15544">
        <ele>662.1</ele>
        <time>2016-07-23T11:49:34Z</time>
      </trkpt>
      <trkpt lat="42.53184" lon="0.1554">
        <ele>663.1</ele>
        <time>2016-07-23T11:49:36Z</time>
      </trkpt>
      <trkpt lat="42.5318" lon="0.15536">
        <ele>663.7</ele>
        <time>2016-07-23T11:49:37Z</time>
      </trkpt>
      <trkpt lat="42.53177" lon="0.15532">
        <ele>664.1</ele>
        <time>2016-07-23T11:49:38Z</time>
      </trkpt>
      <trkpt lat="42.53173" lon="0.15529">
        <ele>664.8</ele>
        <time>2016-07-23T11:49:39Z</time>
      </trkpt>
      <trkpt lat="42.53169" lon="0.15525">
        <ele>665.4</ele>
        <time>2016-07-23T11:49:40Z</time>
      </trkpt>
      <trkpt lat="42.53165" lon="0.15522">
        <ele>666.3</ele>
        <time>2016-07-23T11:49:41Z</time>
      </trkpt>
      <trkpt lat="42.5316" lon="0.15518">
        <ele>667.3</ele>
        <time>2016-07-23T11:49:42Z</time>
      </trkpt>
      <trkpt lat="42.53156" lon="0.15516">
        <ele>668.2</ele>
        <time>2016-07-23T11:49:43Z</time>
      </trkpt>
      <trkpt lat="42.53152" lon="0.15514">
        <ele>668.9</ele>
        <time>2016-07-23T11:49:44Z</time>
      </trkpt>
      <trkpt lat="42.53149" lon="0.15511">
        <ele>669.5</ele>
        <time>2016-07-23T11:49:45Z</time>
      </trkpt>
      <trkpt lat="42.53146" lon="0.15507">
        <ele>669.7</ele>
        <time>2016-07-23T11:49:46Z</time>
      </trkpt>
      <trkpt lat="42.53143" lon="0.15504">
        <ele>669.7</ele>
        <time>2016-07-23T11:49:47Z</time>
      </trkpt>
      <trkpt lat="42.5314" lon="0.155">
        <ele>669.9</ele>
        <time>2016-07-23T11:49:48Z</time>
      </trkpt>
      <trkpt lat="42.53136" lon="0.15496">
        <ele>670.1</ele>
        <time>2016-07-23T11:49:49Z</time>
      </trkpt>
      <trkpt lat="42.53132" lon="0.15491">
        <ele>670.2</ele>
        <time>2016-07-23T11:49:50Z</time>
      </trkpt>
      <trkpt lat="42.53129" lon="0.15486">
        <ele>669.8</ele>
        <time>2016-07-23T11:49:51Z</time>
      </trkpt>
      <trkpt lat="42.53126" lon="0.15478">
        <ele>668.9</ele>
        <time>2016-07-23T11:49:52Z</time>
      </trkpt>
      <trkpt lat="42.53124" lon="0.15471">
        <ele>667.5</ele>
        <time>2016-07-23T11:49:53Z</time>
      </trkpt>
      <trkpt lat="42.53121" lon="0.15462">
        <ele>666</ele>
        <time>2016-07-23T11:49:54Z</time>
      </trkpt>
      <trkpt lat="42.53118" lon="0.15454">
        <ele>664.6</ele>
        <time>2016-07-23T11:49:55Z</time>
      </trkpt>
      <trkpt lat="42.53115" lon="0.15446">
        <ele>663.2</ele>
        <time>2016-07-23T11:49:56Z</time>
      </trkpt>
      <trkpt lat="42.53112" lon="0.15439">
        <ele>661.9</ele>
        <time>2016-07-23T11:49:57Z</time>
      </trkpt>
      <trkpt lat="42.5311" lon="0.15431">
        <ele>660.4</ele>
        <time>2016-07-23T11:49:58Z</time>
      </trkpt>
      <trkpt lat="42.53106" lon="0.1542">
        <ele>657.8</ele>
        <time>2016-07-23T11:49:59Z</time>
      </trkpt>
      <trkpt lat="42.53104" lon="0.15414">
        <ele>656.7</ele>
        <time>2016-07-23T11:50:00Z</time>
      </trkpt>
      <trkpt lat="42.53101" lon="0.15409">
        <ele>655.8</ele>
        <time>2016-07-23T11:50:01Z</time>
      </trkpt>
      <trkpt lat="42.53097" lon="0.15402">
        <ele>654.9</ele>
        <time>2016-07-23T11:50:02Z</time>
      </trkpt>
      <trkpt lat="42.53093" lon="0.15396">
        <ele>653.7</ele>
        <time>2016-07-23T11:50:03Z</time>
      </trkpt>
      <trkpt lat="42.53092" lon="0.1539">
        <ele>652.1</ele>
        <time>2016-07-23T11:50:04Z</time>
      </trkpt>
      <trkpt lat="42.53091" lon="0.15384">
        <ele>650.4</ele>
        <time>2016-07-23T11:50:05Z</time>
      </trkpt>
      <trkpt lat="42.53089" lon="0.15379">
        <ele>649.4</ele>
        <time>2016-07-23T11:50:06Z</time>
      </trkpt>
      <trkpt lat="42.53085" lon="0.15374">
        <ele>648.5</ele>
        <time>2016-07-23T11:50:07Z</time>
      </trkpt>
      <trkpt lat="42.53081" lon="0.15368">
        <ele>648.5</ele>
        <time>2016-07-23T11:50:08Z</time>
      </trkpt>
      <trkpt lat="42.53076" lon="0.15363">
        <ele>648.3</ele>
        <time>2016-07-23T11:50:09Z</time>
      </trkpt>
      <trkpt lat="42.53072" lon="0.15355">
        <ele>647.6</ele>
        <time>2016-07-23T11:50:10Z</time>
      </trkpt>
      <trkpt lat="42.53067" lon="0.15347">
        <ele>646.7</ele>
        <time>2016-07-23T11:50:11Z</time>
      </trkpt>
      <trkpt lat="42.5306" lon="0.1534">
        <ele>646.1</ele>
        <time>2016-07-23T11:50:12Z</time>
      </trkpt>
      <trkpt lat="42.53052" lon="0.15335">
        <ele>645.6</ele>
        <time>2016-07-23T11:50:13Z</time>
      </trkpt>
      <trkpt lat="42.53046" lon="0.15331">
        <ele>645.2</ele>
        <time>2016-07-23T11:50:14Z</time>
      </trkpt>
      <trkpt lat="42.53038" lon="0.15328">
        <ele>645.9</ele>
        <time>2016-07-23T11:50:15Z</time>
      </trkpt>
      <trkpt lat="42.5303" lon="0.15323">
        <ele>647.6</ele>
        <time>2016-07-23T11:50:16Z</time>
      </trkpt>
      <trkpt lat="42.53025" lon="0.15322">
        <ele>649</ele>
        <time>2016-07-23T11:50:17Z</time>
      </trkpt>
      <trkpt lat="42.53018" lon="0.15322">
        <ele>651.2</ele>
        <time>2016-07-23T11:50:18Z</time>
      </trkpt>
      <trkpt lat="42.53016" lon="0.15319">
        <ele>651.3</ele>
        <time>2016-07-23T11:50:19Z</time>
      </trkpt>
      <trkpt lat="42.53012" lon="0.15315">
        <ele>652.2</ele>
        <time>2016-07-23T11:50:20Z</time>
      </trkpt>
      <trkpt lat="42.53008" lon="0.15312">
        <ele>653</ele>
        <time>2016-07-23T11:50:21Z</time>
      </trkpt>
      <trkpt lat="42.53004" lon="0.15309">
        <ele>654</ele>
        <time>2016-07-23T11:50:22Z</time>
      </trkpt>
      <trkpt lat="42.52999" lon="0.15304">
        <ele>655.4</ele>
        <time>2016-07-23T11:50:23Z</time>
      </trkpt>
      <trkpt lat="42.52997" lon="0.153">
        <ele>655.4</ele>
        <time>2016-07-23T11:50:24Z</time>
      </trkpt>
      <trkpt lat="42.52992" lon="0.15295">
        <ele>656.8</ele>
        <time>2016-07-23T11:50:25Z</time>
      </trkpt>
      <trkpt lat="42.52985" lon="0.15291">
        <ele>659.1</ele>
        <time>2016-07-23T11:50:26Z</time>
      </trkpt>
      <trkpt lat="42.52978" lon="0.15287">
        <ele>661.6</ele>
        <time>2016-07-23T11:50:27Z</time>
      </trkpt>
      <trkpt lat="42.52974" lon="0.15284">
        <ele>663.5</ele>
        <time>2016-07-23T11:50:28Z</time>
      </trkpt>
      <trkpt lat="42.52971" lon="0.15281">
        <ele>664.5</ele>
        <time>2016-07-23T11:50:29Z</time>
      </trkpt>
      <trkpt lat="42.52965" lon="0.15279">
        <ele>666.7</ele>
        <time>2016-07-23T11:50:30Z</time>
      </trkpt>
      <trkpt lat="42.5296" lon="0.15279">
        <ele>668.8</ele>
        <time>2016-07-23T11:50:31Z</time>
      </trkpt>
      <trkpt lat="42.52954" lon="0.15279">
        <ele>670.9</ele>
        <time>2016-07-23T11:50:32Z</time>
      </trkpt>
      <trkpt lat="42.5295" lon="0.15279">
        <ele>672.2</ele>
        <time>2016-07-23T11:50:33Z</time>
      </trkpt>
      <trkpt lat="42.52946" lon="0.15279">
        <ele>673.6</ele>
        <time>2016-07-23T11:50:34Z</time>
      </trkpt>
      <trkpt lat="42.52944" lon="0.15274">
        <ele>674</ele>
        <time>2016-07-23T11:50:37Z</time>
      </trkpt>
      <trkpt lat="42.52944" lon="0.1527">
        <ele>674</ele>
        <time>2016-07-23T11:50:39Z</time>
      </trkpt>
      <trkpt lat="42.52943" lon="0.15266">
        <ele>674.1</ele>
        <time>2016-07-23T11:50:40Z</time>
      </trkpt>
      <trkpt lat="42.52941" lon="0.15261">
        <ele>674.7</ele>
        <time>2016-07-23T11:50:42Z</time>
      </trkpt>
      <trkpt lat="42.52944" lon="0.1526">
        <ele>673.7</ele>
        <time>2016-07-23T11:50:46Z</time>
      </trkpt>
      <trkpt lat="42.52946" lon="0.15259">
        <ele>672.7</ele>
        <time>2016-07-23T11:50:51Z</time>
      </trkpt>
      <trkpt lat="42.52948" lon="0.15256">
        <ele>671.8</ele>
        <time>2016-07-23T11:51:00Z</time>
      </trkpt>
      <trkpt lat="42.52949" lon="0.15252">
        <ele>671.4</ele>
        <time>2016-07-23T11:51:02Z</time>
      </trkpt>
      <trkpt lat="42.5295" lon="0.15247">
        <ele>670.9</ele>
        <time>2016-07-23T11:51:04Z</time>
      </trkpt>
      <trkpt lat="42.5295" lon="0.15242">
        <ele>670.5</ele>
        <time>2016-07-23T11:51:06Z</time>
      </trkpt>
      <trkpt lat="42.5295" lon="0.15237">
        <ele>670.4</ele>
        <time>2016-07-23T11:51:08Z</time>
      </trkpt>
      <trkpt lat="42.52949" lon="0.15232">
        <ele>670.3</ele>
        <time>2016-07-23T11:51:10Z</time>
      </trkpt>
      <trkpt lat="42.52949" lon="0.15226">
        <ele>670</ele>
        <time>2016-07-23T11:51:12Z</time>
      </trkpt>
      <trkpt lat="42.52949" lon="0.15221">
        <ele>669.8</ele>
        <time>2016-07-23T11:51:14Z</time>
      </trkpt>
      <trkpt lat="42.52949" lon="0.15216">
        <ele>669.8</ele>
        <time>2016-07-23T11:51:16Z</time>
      </trkpt>
      <trkpt lat="42.52947" lon="0.15211">
        <ele>670</ele>
        <time>2016-07-23T11:51:18Z</time>
      </trkpt>
      <trkpt lat="42.52946" lon="0.15206">
        <ele>670.1</ele>
        <time>2016-07-23T11:51:20Z</time>
      </trkpt>
      <trkpt lat="42.52945" lon="0.152">
        <ele>669.6</ele>
        <time>2016-07-23T11:51:22Z</time>
      </trkpt>
      <trkpt lat="42.52944" lon="0.15194">
        <ele>669.2</ele>
        <time>2016-07-23T11:51:24Z</time>
      </trkpt>
      <trkpt lat="42.52943" lon="0.15188">
        <ele>668.7</ele>
        <time>2016-07-23T11:51:26Z</time>
      </trkpt>
      <trkpt lat="42.52943" lon="0.15181">
        <ele>667.9</ele>
        <time>2016-07-23T11:51:28Z</time>
      </trkpt>
      <trkpt lat="42.52943" lon="0.15174">
        <ele>667.3</ele>
        <time>2016-07-23T11:51:30Z</time>
      </trkpt>
      <trkpt lat="42.52942" lon="0.1517">
        <ele>666.8</ele>
        <time>2016-07-23T11:51:32Z</time>
      </trkpt>
      <trkpt lat="42.52941" lon="0.15165">
        <ele>666.7</ele>
        <time>2016-07-23T11:51:36Z</time>
      </trkpt>
      <trkpt lat="42.52944" lon="0.15161">
        <ele>665.2</ele>
        <time>2016-07-23T11:52:37Z</time>
      </trkpt>
      <trkpt lat="42.52946" lon="0.15153">
        <ele>663.5</ele>
        <time>2016-07-23T11:52:39Z</time>
      </trkpt>
      <trkpt lat="42.52948" lon="0.15146">
        <ele>662.1</ele>
        <time>2016-07-23T11:52:40Z</time>
      </trkpt>
      <trkpt lat="42.5295" lon="0.1514">
        <ele>660.7</ele>
        <time>2016-07-23T11:52:41Z</time>
      </trkpt>
      <trkpt lat="42.52951" lon="0.15135">
        <ele>659.6</ele>
        <time>2016-07-23T11:52:42Z</time>
      </trkpt>
      <trkpt lat="42.52952" lon="0.1513">
        <ele>658.8</ele>
        <time>2016-07-23T11:52:43Z</time>
      </trkpt>
      <trkpt lat="42.52952" lon="0.15125">
        <ele>658.1</ele>
        <time>2016-07-23T11:52:44Z</time>
      </trkpt>
      <trkpt lat="42.52953" lon="0.15121">
        <ele>657</ele>
        <time>2016-07-23T11:52:45Z</time>
      </trkpt>
      <trkpt lat="42.52954" lon="0.15116">
        <ele>655.5</ele>
        <time>2016-07-23T11:52:47Z</time>
      </trkpt>
      <trkpt lat="42.52955" lon="0.15113">
        <ele>654.3</ele>
        <time>2016-07-23T11:52:56Z</time>
      </trkpt>
      <trkpt lat="42.52954" lon="0.15109">
        <ele>653.7</ele>
        <time>2016-07-23T11:53:02Z</time>
      </trkpt>
      <trkpt lat="42.52952" lon="0.15105">
        <ele>653.5</ele>
        <time>2016-07-23T11:53:07Z</time>
      </trkpt>
      <trkpt lat="42.52949" lon="0.15105">
        <ele>654.4</ele>
        <time>2016-07-23T11:53:12Z</time>
      </trkpt>
      <trkpt lat="42.52946" lon="0.15104">
        <ele>655.2</ele>
        <time>2016-07-23T11:53:18Z</time>
      </trkpt>
      <trkpt lat="42.52943" lon="0.15101">
        <ele>655.5</ele>
        <time>2016-07-23T11:53:20Z</time>
      </trkpt>
      <trkpt lat="42.5294" lon="0.15099">
        <ele>655.8</ele>
        <time>2016-07-23T11:53:22Z</time>
      </trkpt>
      <trkpt lat="42.52937" lon="0.15097">
        <ele>656.1</ele>
        <time>2016-07-23T11:53:24Z</time>
      </trkpt>
      <trkpt lat="42.52933" lon="0.15094">
        <ele>656.4</ele>
        <time>2016-07-23T11:53:26Z</time>
      </trkpt>
      <trkpt lat="42.5293" lon="0.15091">
        <ele>656.5</ele>
        <time>2016-07-23T11:53:28Z</time>
      </trkpt>
      <trkpt lat="42.52927" lon="0.15087">
        <ele>656.3</ele>
        <time>2016-07-23T11:53:30Z</time>
      </trkpt>
      <trkpt lat="42.52925" lon="0.15084">
        <ele>656.1</ele>
        <time>2016-07-23T11:53:31Z</time>
      </trkpt>
      <trkpt lat="42.52923" lon="0.15081">
        <ele>655.9</ele>
        <time>2016-07-23T11:53:32Z</time>
      </trkpt>
      <trkpt lat="42.52921" lon="0.15078">
        <ele>655.6</ele>
        <time>2016-07-23T11:53:33Z</time>
      </trkpt>
      <trkpt lat="42.52919" lon="0.15074">
        <ele>655.2</ele>
        <time>2016-07-23T11:53:34Z</time>
      </trkpt>
      <trkpt lat="42.52917" lon="0.1507">
        <ele>654.8</ele>
        <time>2016-07-23T11:53:35Z</time>
      </trkpt>
      <trkpt lat="42.52915" lon="0.15067">
        <ele>654.3</ele>
        <time>2016-07-23T11:53:42Z</time>
      </trkpt>
      <trkpt lat="42.52914" lon="0.15063">
        <ele>653.8</ele>
        <time>2016-07-23T11:53:50Z</time>
      </trkpt>
      <trkpt lat="42.52911" lon="0.15061">
        <ele>653.7</ele>
        <time>2016-07-23T11:53:54Z</time>
      </trkpt>
      <trkpt lat="42.52908" lon="0.15059">
        <ele>654</ele>
        <time>2016-07-23T11:53:58Z</time>
      </trkpt>
      <trkpt lat="42.52906" lon="0.15055">
        <ele>653.5</ele>
        <time>2016-07-23T11:54:01Z</time>
      </trkpt>
      <trkpt lat="42.52902" lon="0.15051">
        <ele>653.2</ele>
        <time>2016-07-23T11:54:03Z</time>
      </trkpt>
      <trkpt lat="42.529" lon="0.15049">
        <ele>653.3</ele>
        <time>2016-07-23T11:54:04Z</time>
      </trkpt>
      <trkpt lat="42.52897" lon="0.15047">
        <ele>653.4</ele>
        <time>2016-07-23T11:54:05Z</time>
      </trkpt>
      <trkpt lat="42.52894" lon="0.15046">
        <ele>653.5</ele>
        <time>2016-07-23T11:54:06Z</time>
      </trkpt>
      <trkpt lat="42.52892" lon="0.15044">
        <ele>653.7</ele>
        <time>2016-07-23T11:54:07Z</time>
      </trkpt>
      <trkpt lat="42.52889" lon="0.15042">
        <ele>653.9</ele>
        <time>2016-07-23T11:54:08Z</time>
      </trkpt>
      <trkpt lat="42.52886" lon="0.15041">
        <ele>654.2</ele>
        <time>2016-07-23T11:54:09Z</time>
      </trkpt>
      <trkpt lat="42.52883" lon="0.15039">
        <ele>654.5</ele>
        <time>2016-07-23T11:54:10Z</time>
      </trkpt>
      <trkpt lat="42.5288" lon="0.15037">
        <ele>654.7</ele>
        <time>2016-07-23T11:54:11Z</time>
      </trkpt>
      <trkpt lat="42.52878" lon="0.15036">
        <ele>654.8</ele>
        <time>2016-07-23T11:54:12Z</time>
      </trkpt>
      <trkpt lat="42.52875" lon="0.15034">
        <ele>654.8</ele>
        <time>2016-07-23T11:54:13Z</time>
      </trkpt>
      <trkpt lat="42.52873" lon="0.15031">
        <ele>654.7</ele>
        <time>2016-07-23T11:54:14Z</time>
      </trkpt>
      <trkpt lat="42.52871" lon="0.15028">
        <ele>654.5</ele>
        <time>2016-07-23T11:54:15Z</time>
      </trkpt>
      <trkpt lat="42.52869" lon="0.15025">
        <ele>654.3</ele>
        <time>2016-07-23T11:54:16Z</time>
      </trkpt>
      <trkpt lat="42.52866" lon="0.15021">
        <ele>654.1</ele>
        <time>2016-07-23T11:54:17Z</time>
      </trkpt>
      <trkpt lat="42.52864" lon="0.15018">
        <ele>654.1</ele>
        <time>2016-07-23T11:54:18Z</time>
      </trkpt>
      <trkpt lat="42.52861" lon="0.15015">
        <ele>654.1</ele>
        <time>2016-07-23T11:54:19Z</time>
      </trkpt>
      <trkpt lat="42.52858" lon="0.15011">
        <ele>653.9</ele>
        <time>2016-07-23T11:54:20Z</time>
      </trkpt>
      <trkpt lat="42.52855" lon="0.15007">
        <ele>653.8</ele>
        <time>2016-07-23T11:54:21Z</time>
      </trkpt>
      <trkpt lat="42.52852" lon="0.15002">
        <ele>653.7</ele>
        <time>2016-07-23T11:54:22Z</time>
      </trkpt>
      <trkpt lat="42.52849" lon="0.14998">
        <ele>653.6</ele>
        <time>2016-07-23T11:54:23Z</time>
      </trkpt>
      <trkpt lat="42.52846" lon="0.14995">
        <ele>653.7</ele>
        <time>2016-07-23T11:54:24Z</time>
      </trkpt>
      <trkpt lat="42.52844" lon="0.14991">
        <ele>653.6</ele>
        <time>2016-07-23T11:54:25Z</time>
      </trkpt>
      <trkpt lat="42.52841" lon="0.14987">
        <ele>653.6</ele>
        <time>2016-07-23T11:54:26Z</time>
      </trkpt>
      <trkpt lat="42.52838" lon="0.14984">
        <ele>653.8</ele>
        <time>2016-07-23T11:54:27Z</time>
      </trkpt>
      <trkpt lat="42.52835" lon="0.14981">
        <ele>654.1</ele>
        <time>2016-07-23T11:54:28Z</time>
      </trkpt>
      <trkpt lat="42.52832" lon="0.14978">
        <ele>654.5</ele>
        <time>2016-07-23T11:54:29Z</time>
      </trkpt>
      <trkpt lat="42.52829" lon="0.14975">
        <ele>654.8</ele>
        <time>2016-07-23T11:54:30Z</time>
      </trkpt>
      <trkpt lat="42.52826" lon="0.1497">
        <ele>654.8</ele>
        <time>2016-07-23T11:54:31Z</time>
      </trkpt>
      <trkpt lat="42.52823" lon="0.14965">
        <ele>654.6</ele>
        <time>2016-07-23T11:54:32Z</time>
      </trkpt>
      <trkpt lat="42.52821" lon="0.14959">
        <ele>654.4</ele>
        <time>2016-07-23T11:54:33Z</time>
      </trkpt>
      <trkpt lat="42.52818" lon="0.14955">
        <ele>654.6</ele>
        <time>2016-07-23T11:54:34Z</time>
      </trkpt>
      <trkpt lat="42.52816" lon="0.14951">
        <ele>655</ele>
        <time>2016-07-23T11:54:35Z</time>
      </trkpt>
      <trkpt lat="42.52814" lon="0.14947">
        <ele>655.3</ele>
        <time>2016-07-23T11:54:36Z</time>
      </trkpt>
      <trkpt lat="42.52812" lon="0.14944">
        <ele>655.5</ele>
        <time>2016-07-23T11:54:37Z</time>
      </trkpt>
      <trkpt lat="42.5281" lon="0.14939">
        <ele>655.8</ele>
        <time>2016-07-23T11:54:39Z</time>
      </trkpt>
      <trkpt lat="42.52807" lon="0.14933">
        <ele>655.8</ele>
        <time>2016-07-23T11:54:41Z</time>
      </trkpt>
      <trkpt lat="42.52806" lon="0.14929">
        <ele>655.4</ele>
        <time>2016-07-23T11:54:43Z</time>
      </trkpt>
      <trkpt lat="42.52806" lon="0.14925">
        <ele>654.9</ele>
        <time>2016-07-23T11:54:46Z</time>
      </trkpt>
      <trkpt lat="42.52806" lon="0.14921">
        <ele>654.5</ele>
        <time>2016-07-23T11:54:54Z</time>
      </trkpt>
      <trkpt lat="42.52806" lon="0.14917">
        <ele>653.8</ele>
        <time>2016-07-23T11:55:28Z</time>
      </trkpt>
      <trkpt lat="42.52805" lon="0.14911">
        <ele>653.4</ele>
        <time>2016-07-23T11:55:30Z</time>
      </trkpt>
      <trkpt lat="42.52803" lon="0.14907">
        <ele>653.2</ele>
        <time>2016-07-23T11:55:31Z</time>
      </trkpt>
      <trkpt lat="42.52802" lon="0.14903">
        <ele>653</ele>
        <time>2016-07-23T11:55:32Z</time>
      </trkpt>
      <trkpt lat="42.528" lon="0.149">
        <ele>653</ele>
        <time>2016-07-23T11:55:33Z</time>
      </trkpt>
      <trkpt lat="42.52797" lon="0.14896">
        <ele>653.1</ele>
        <time>2016-07-23T11:55:34Z</time>
      </trkpt>
      <trkpt lat="42.52795" lon="0.14893">
        <ele>653.2</ele>
        <time>2016-07-23T11:55:35Z</time>
      </trkpt>
      <trkpt lat="42.52793" lon="0.1489">
        <ele>653.3</ele>
        <time>2016-07-23T11:55:36Z</time>
      </trkpt>
      <trkpt lat="42.5279" lon="0.14887">
        <ele>653.4</ele>
        <time>2016-07-23T11:55:37Z</time>
      </trkpt>
      <trkpt lat="42.52788" lon="0.14884">
        <ele>653.5</ele>
        <time>2016-07-23T11:55:38Z</time>
      </trkpt>
      <trkpt lat="42.52785" lon="0.1488">
        <ele>653.7</ele>
        <time>2016-07-23T11:55:39Z</time>
      </trkpt>
      <trkpt lat="42.52782" lon="0.14877">
        <ele>653.9</ele>
        <time>2016-07-23T11:55:40Z</time>
      </trkpt>
      <trkpt lat="42.5278" lon="0.14874">
        <ele>653.9</ele>
        <time>2016-07-23T11:55:41Z</time>
      </trkpt>
      <trkpt lat="42.52779" lon="0.1487">
        <ele>653.8</ele>
        <time>2016-07-23T11:55:42Z</time>
      </trkpt>
      <trkpt lat="42.52777" lon="0.14866">
        <ele>653.6</ele>
        <time>2016-07-23T11:55:44Z</time>
      </trkpt>
      <trkpt lat="42.52775" lon="0.14862">
        <ele>653.5</ele>
        <time>2016-07-23T11:55:46Z</time>
      </trkpt>
      <trkpt lat="42.52773" lon="0.14856">
        <ele>653.3</ele>
        <time>2016-07-23T11:55:48Z</time>
      </trkpt>
      <trkpt lat="42.52772" lon="0.1485">
        <ele>652.6</ele>
        <time>2016-07-23T11:55:50Z</time>
      </trkpt>
      <trkpt lat="42.52772" lon="0.14843">
        <ele>651.6</ele>
        <time>2016-07-23T11:55:52Z</time>
      </trkpt>
      <trkpt lat="42.52773" lon="0.14837">
        <ele>650.5</ele>
        <time>2016-07-23T11:55:54Z</time>
      </trkpt>
      <trkpt lat="42.52774" lon="0.14833">
        <ele>649.7</ele>
        <time>2016-07-23T11:55:56Z</time>
      </trkpt>
      <trkpt lat="42.52775" lon="0.14828">
        <ele>648.7</ele>
        <time>2016-07-23T11:55:58Z</time>
      </trkpt>
      <trkpt lat="42.52775" lon="0.14821">
        <ele>647.4</ele>
        <time>2016-07-23T11:56:00Z</time>
      </trkpt>
      <trkpt lat="42.52775" lon="0.14817">
        <ele>646.8</ele>
        <time>2016-07-23T11:56:01Z</time>
      </trkpt>
      <trkpt lat="42.52775" lon="0.14813">
        <ele>646.2</ele>
        <time>2016-07-23T11:56:02Z</time>
      </trkpt>
      <trkpt lat="42.52775" lon="0.14809">
        <ele>645.5</ele>
        <time>2016-07-23T11:56:03Z</time>
      </trkpt>
      <trkpt lat="42.52775" lon="0.14804">
        <ele>644.8</ele>
        <time>2016-07-23T11:56:04Z</time>
      </trkpt>
      <trkpt lat="42.52775" lon="0.14799">
        <ele>644.1</ele>
        <time>2016-07-23T11:56:05Z</time>
      </trkpt>
      <trkpt lat="42.52775" lon="0.14795">
        <ele>643.6</ele>
        <time>2016-07-23T11:56:06Z</time>
      </trkpt>
      <trkpt lat="42.52773" lon="0.14792">
        <ele>643.6</ele>
        <time>2016-07-23T11:56:11Z</time>
      </trkpt>
      <trkpt lat="42.52771" lon="0.14789">
        <ele>643.5</ele>
        <time>2016-07-23T11:56:13Z</time>
      </trkpt>
      <trkpt lat="42.5277" lon="0.14783">
        <ele>643</ele>
        <time>2016-07-23T11:56:15Z</time>
      </trkpt>
      <trkpt lat="42.52768" lon="0.14777">
        <ele>642.4</ele>
        <time>2016-07-23T11:56:17Z</time>
      </trkpt>
      <trkpt lat="42.52767" lon="0.1477">
        <ele>641.7</ele>
        <time>2016-07-23T11:56:19Z</time>
      </trkpt>
      <trkpt lat="42.52766" lon="0.14766">
        <ele>641.2</ele>
        <time>2016-07-23T11:56:20Z</time>
      </trkpt>
      <trkpt lat="42.52764" lon="0.14762">
        <ele>640.8</ele>
        <time>2016-07-23T11:56:21Z</time>
      </trkpt>
      <trkpt lat="42.52763" lon="0.14758">
        <ele>640.4</ele>
        <time>2016-07-23T11:56:22Z</time>
      </trkpt>
      <trkpt lat="42.52761" lon="0.14755">
        <ele>640.1</ele>
        <time>2016-07-23T11:56:23Z</time>
      </trkpt>
      <trkpt lat="42.5276" lon="0.14751">
        <ele>639.8</ele>
        <time>2016-07-23T11:56:24Z</time>
      </trkpt>
      <trkpt lat="42.52758" lon="0.14748">
        <ele>639.3</ele>
        <time>2016-07-23T11:56:25Z</time>
      </trkpt>
      <trkpt lat="42.52758" lon="0.14744">
        <ele>638.7</ele>
        <time>2016-07-23T11:56:26Z</time>
      </trkpt>
      <trkpt lat="42.52758" lon="0.1474">
        <ele>638</ele>
        <time>2016-07-23T11:56:27Z</time>
      </trkpt>
      <trkpt lat="42.52757" lon="0.14735">
        <ele>637.2</ele>
        <time>2016-07-23T11:56:29Z</time>
      </trkpt>
      <trkpt lat="42.52754" lon="0.14731">
        <ele>636.7</ele>
        <time>2016-07-23T11:56:31Z</time>
      </trkpt>
      <trkpt lat="42.52751" lon="0.14729">
        <ele>636.6</ele>
        <time>2016-07-23T11:56:33Z</time>
      </trkpt>
      <trkpt lat="42.52746" lon="0.14728">
        <ele>636.5</ele>
        <time>2016-07-23T11:56:35Z</time>
      </trkpt>
      <trkpt lat="42.52742" lon="0.14725">
        <ele>636.2</ele>
        <time>2016-07-23T11:56:37Z</time>
      </trkpt>
      <trkpt lat="42.52739" lon="0.14721">
        <ele>635.5</ele>
        <time>2016-07-23T11:56:39Z</time>
      </trkpt>
      <trkpt lat="42.52736" lon="0.14718">
        <ele>634.9</ele>
        <time>2016-07-23T11:56:41Z</time>
      </trkpt>
      <trkpt lat="42.52733" lon="0.14716">
        <ele>634.5</ele>
        <time>2016-07-23T11:56:43Z</time>
      </trkpt>
      <trkpt lat="42.52729" lon="0.14714">
        <ele>634.3</ele>
        <time>2016-07-23T11:56:45Z</time>
      </trkpt>
      <trkpt lat="42.52726" lon="0.14714">
        <ele>634.3</ele>
        <time>2016-07-23T11:56:47Z</time>
      </trkpt>
      <trkpt lat="42.52723" lon="0.14713">
        <ele>634.2</ele>
        <time>2016-07-23T11:56:49Z</time>
      </trkpt>
      <trkpt lat="42.52718" lon="0.14711">
        <ele>633.6</ele>
        <time>2016-07-23T11:56:51Z</time>
      </trkpt>
      <trkpt lat="42.52716" lon="0.14708">
        <ele>632.9</ele>
        <time>2016-07-23T11:56:52Z</time>
      </trkpt>
      <trkpt lat="42.52713" lon="0.14705">
        <ele>632.9</ele>
        <time>2016-07-23T11:56:53Z</time>
      </trkpt>
      <trkpt lat="42.5271" lon="0.14703">
        <ele>632.9</ele>
        <time>2016-07-23T11:56:54Z</time>
      </trkpt>
      <trkpt lat="42.52706" lon="0.147">
        <ele>632.8</ele>
        <time>2016-07-23T11:56:56Z</time>
      </trkpt>
      <trkpt lat="42.52701" lon="0.14699">
        <ele>632.7</ele>
        <time>2016-07-23T11:56:58Z</time>
      </trkpt>
      <trkpt lat="42.52697" lon="0.14698">
        <ele>632.6</ele>
        <time>2016-07-23T11:57:00Z</time>
      </trkpt>
      <trkpt lat="42.52693" lon="0.14699">
        <ele>632.5</ele>
        <time>2016-07-23T11:57:02Z</time>
      </trkpt>
      <trkpt lat="42.52688" lon="0.14699">
        <ele>632.4</ele>
        <time>2016-07-23T11:57:04Z</time>
      </trkpt>
      <trkpt lat="42.52683" lon="0.14698">
        <ele>632.2</ele>
        <time>2016-07-23T11:57:06Z</time>
      </trkpt>
      <trkpt lat="42.52679" lon="0.14698">
        <ele>632.1</ele>
        <time>2016-07-23T11:57:07Z</time>
      </trkpt>
      <trkpt lat="42.52676" lon="0.14698">
        <ele>632.1</ele>
        <time>2016-07-23T11:57:08Z</time>
      </trkpt>
      <trkpt lat="42.52672" lon="0.14699">
        <ele>632</ele>
        <time>2016-07-23T11:57:09Z</time>
      </trkpt>
      <trkpt lat="42.52666" lon="0.14703">
        <ele>631.9</ele>
        <time>2016-07-23T11:57:10Z</time>
      </trkpt>
      <trkpt lat="42.52657" lon="0.14717">
        <ele>634</ele>
        <time>2016-07-23T11:57:11Z</time>
      </trkpt>
      <trkpt lat="42.52654" lon="0.14715">
        <ele>633.4</ele>
        <time>2016-07-23T11:57:12Z</time>
      </trkpt>
      <trkpt lat="42.52648" lon="0.14716">
        <ele>633.3</ele>
        <time>2016-07-23T11:57:13Z</time>
      </trkpt>
      <trkpt lat="42.52643" lon="0.14716">
        <ele>633.2</ele>
        <time>2016-07-23T11:57:16Z</time>
      </trkpt>
      <trkpt lat="42.5264" lon="0.14717">
        <ele>633.2</ele>
        <time>2016-07-23T11:57:17Z</time>
      </trkpt>
      <trkpt lat="42.52636" lon="0.14718">
        <ele>633.3</ele>
        <time>2016-07-23T11:57:18Z</time>
      </trkpt>
      <trkpt lat="42.52633" lon="0.14719">
        <ele>633.5</ele>
        <time>2016-07-23T11:57:19Z</time>
      </trkpt>
      <trkpt lat="42.52629" lon="0.14721">
        <ele>633.7</ele>
        <time>2016-07-23T11:57:20Z</time>
      </trkpt>
      <trkpt lat="42.52624" lon="0.14722">
        <ele>633.7</ele>
        <time>2016-07-23T11:57:21Z</time>
      </trkpt>
      <trkpt lat="42.52619" lon="0.14724">
        <ele>633.8</ele>
        <time>2016-07-23T11:57:22Z</time>
      </trkpt>
      <trkpt lat="42.52615" lon="0.14727">
        <ele>634</ele>
        <time>2016-07-23T11:57:23Z</time>
      </trkpt>
      <trkpt lat="42.52611" lon="0.1473">
        <ele>634.2</ele>
        <time>2016-07-23T11:57:24Z</time>
      </trkpt>
      <trkpt lat="42.52606" lon="0.14734">
        <ele>634.4</ele>
        <time>2016-07-23T11:57:25Z</time>
      </trkpt>
      <trkpt lat="42.52601" lon="0.14737">
        <ele>634.5</ele>
        <time>2016-07-23T11:57:26Z</time>
      </trkpt>
      <trkpt lat="42.52596" lon="0.14741">
        <ele>634.6</ele>
        <time>2016-07-23T11:57:27Z</time>
      </trkpt>
      <trkpt lat="42.52591" lon="0.14745">
        <ele>634.6</ele>
        <time>2016-07-23T11:57:28Z</time>
      </trkpt>
      <trkpt lat="42.52586" lon="0.14749">
        <ele>634.4</ele>
        <time>2016-07-23T11:57:29Z</time>
      </trkpt>
      <trkpt lat="42.52581" lon="0.14753">
        <ele>634.2</ele>
        <time>2016-07-23T11:57:30Z</time>
      </trkpt>
      <trkpt lat="42.52576" lon="0.14757">
        <ele>633.9</ele>
        <time>2016-07-23T11:57:31Z</time>
      </trkpt>
      <trkpt lat="42.5257" lon="0.14761">
        <ele>633.5</ele>
        <time>2016-07-23T11:57:32Z</time>
      </trkpt>
      <trkpt lat="42.52565" lon="0.14765">
        <ele>633</ele>
        <time>2016-07-23T11:57:33Z</time>
      </trkpt>
      <trkpt lat="42.52559" lon="0.14769">
        <ele>632.4</ele>
        <time>2016-07-23T11:57:34Z</time>
      </trkpt>
      <trkpt lat="42.52554" lon="0.14772">
        <ele>631.7</ele>
        <time>2016-07-23T11:57:35Z</time>
      </trkpt>
      <trkpt lat="42.5255" lon="0.14775">
        <ele>631</ele>
        <time>2016-07-23T11:57:36Z</time>
      </trkpt>
      <trkpt lat="42.52544" lon="0.14778">
        <ele>630.2</ele>
        <time>2016-07-23T11:57:37Z</time>
      </trkpt>
      <trkpt lat="42.52539" lon="0.14781">
        <ele>629.6</ele>
        <time>2016-07-23T11:57:38Z</time>
      </trkpt>
      <trkpt lat="42.52534" lon="0.14784">
        <ele>629.4</ele>
        <time>2016-07-23T11:57:39Z</time>
      </trkpt>
      <trkpt lat="42.52528" lon="0.14786">
        <ele>629.1</ele>
        <time>2016-07-23T11:57:40Z</time>
      </trkpt>
      <trkpt lat="42.52523" lon="0.14788">
        <ele>628.8</ele>
        <time>2016-07-23T11:57:41Z</time>
      </trkpt>
      <trkpt lat="42.52518" lon="0.14789">
        <ele>628.6</ele>
        <time>2016-07-23T11:57:42Z</time>
      </trkpt>
      <trkpt lat="42.52514" lon="0.1479">
        <ele>628.3</ele>
        <time>2016-07-23T11:57:43Z</time>
      </trkpt>
      <trkpt lat="42.5251" lon="0.14791">
        <ele>628.1</ele>
        <time>2016-07-23T11:57:44Z</time>
      </trkpt>
      <trkpt lat="42.52505" lon="0.14792">
        <ele>627.8</ele>
        <time>2016-07-23T11:57:45Z</time>
      </trkpt>
      <trkpt lat="42.525" lon="0.14792">
        <ele>627.6</ele>
        <time>2016-07-23T11:57:46Z</time>
      </trkpt>
      <trkpt lat="42.52495" lon="0.14793">
        <ele>627.5</ele>
        <time>2016-07-23T11:57:47Z</time>
      </trkpt>
      <trkpt lat="42.52489" lon="0.14795">
        <ele>627.5</ele>
        <time>2016-07-23T11:57:48Z</time>
      </trkpt>
      <trkpt lat="42.52484" lon="0.14798">
        <ele>627.7</ele>
        <time>2016-07-23T11:57:49Z</time>
      </trkpt>
      <trkpt lat="42.52479" lon="0.14801">
        <ele>627.8</ele>
        <time>2016-07-23T11:57:50Z</time>
      </trkpt>
      <trkpt lat="42.52474" lon="0.14804">
        <ele>628</ele>
        <time>2016-07-23T11:57:51Z</time>
      </trkpt>
      <trkpt lat="42.5247" lon="0.14807">
        <ele>628.1</ele>
        <time>2016-07-23T11:57:52Z</time>
      </trkpt>
      <trkpt lat="42.52466" lon="0.1481">
        <ele>628.2</ele>
        <time>2016-07-23T11:57:53Z</time>
      </trkpt>
      <trkpt lat="42.52461" lon="0.14812">
        <ele>628.2</ele>
        <time>2016-07-23T11:57:54Z</time>
      </trkpt>
      <trkpt lat="42.52457" lon="0.14813">
        <ele>628.2</ele>
        <time>2016-07-23T11:57:55Z</time>
      </trkpt>
      <trkpt lat="42.52453" lon="0.14814">
        <ele>628.5</ele>
        <time>2016-07-23T11:57:56Z</time>
      </trkpt>
      <trkpt lat="42.52451" lon="0.14815">
        <ele>628.7</ele>
        <time>2016-07-23T11:57:57Z</time>
      </trkpt>
      <trkpt lat="42.52447" lon="0.14817">
        <ele>629.1</ele>
        <time>2016-07-23T11:57:59Z</time>
      </trkpt>
      <trkpt lat="42.52441" lon="0.14818">
        <ele>629.5</ele>
        <time>2016-07-23T11:58:01Z</time>
      </trkpt>
      <trkpt lat="42.52437" lon="0.14819">
        <ele>629.8</ele>
        <time>2016-07-23T11:58:02Z</time>
      </trkpt>
      <trkpt lat="42.52432" lon="0.14819">
        <ele>630</ele>
        <time>2016-07-23T11:58:03Z</time>
      </trkpt>
      <trkpt lat="42.52427" lon="0.14819">
        <ele>630.1</ele>
        <time>2016-07-23T11:58:04Z</time>
      </trkpt>
      <trkpt lat="42.52422" lon="0.14818">
        <ele>630.2</ele>
        <time>2016-07-23T11:58:05Z</time>
      </trkpt>
      <trkpt lat="42.52416" lon="0.14817">
        <ele>630.3</ele>
        <time>2016-07-23T11:58:06Z</time>
      </trkpt>
      <trkpt lat="42.52411" lon="0.14817">
        <ele>630.5</ele>
        <time>2016-07-23T11:58:07Z</time>
      </trkpt>
      <trkpt lat="42.52407" lon="0.14817">
        <ele>630.8</ele>
        <time>2016-07-23T11:58:08Z</time>
      </trkpt>
      <trkpt lat="42.52402" lon="0.14819">
        <ele>631.2</ele>
        <time>2016-07-23T11:58:09Z</time>
      </trkpt>
      <trkpt lat="42.52399" lon="0.14823">
        <ele>631.8</ele>
        <time>2016-07-23T11:58:10Z</time>
      </trkpt>
      <trkpt lat="42.52396" lon="0.14828">
        <ele>632.6</ele>
        <time>2016-07-23T11:58:11Z</time>
      </trkpt>
      <trkpt lat="42.52396" lon="0.14836">
        <ele>633.5</ele>
        <time>2016-07-23T11:58:12Z</time>
      </trkpt>
      <trkpt lat="42.52396" lon="0.14844">
        <ele>634.5</ele>
        <time>2016-07-23T11:58:13Z</time>
      </trkpt>
      <trkpt lat="42.52398" lon="0.14852">
        <ele>635.5</ele>
        <time>2016-07-23T11:58:14Z</time>
      </trkpt>
      <trkpt lat="42.52398" lon="0.1486">
        <ele>636.5</ele>
        <time>2016-07-23T11:58:15Z</time>
      </trkpt>
      <trkpt lat="42.52398" lon="0.14867">
        <ele>637.4</ele>
        <time>2016-07-23T11:58:16Z</time>
      </trkpt>
      <trkpt lat="42.52396" lon="0.14873">
        <ele>638.3</ele>
        <time>2016-07-23T11:58:17Z</time>
      </trkpt>
      <trkpt lat="42.52394" lon="0.1488">
        <ele>639.1</ele>
        <time>2016-07-23T11:58:18Z</time>
      </trkpt>
      <trkpt lat="42.52391" lon="0.14886">
        <ele>640</ele>
        <time>2016-07-23T11:58:19Z</time>
      </trkpt>
      <trkpt lat="42.52388" lon="0.14892">
        <ele>640.7</ele>
        <time>2016-07-23T11:58:20Z</time>
      </trkpt>
      <trkpt lat="42.52386" lon="0.14897">
        <ele>641.4</ele>
        <time>2016-07-23T11:58:21Z</time>
      </trkpt>
      <trkpt lat="42.52383" lon="0.14901">
        <ele>642</ele>
        <time>2016-07-23T11:58:22Z</time>
      </trkpt>
      <trkpt lat="42.5238" lon="0.14903">
        <ele>642.5</ele>
        <time>2016-07-23T11:58:23Z</time>
      </trkpt>
      <trkpt lat="42.52377" lon="0.14904">
        <ele>642.8</ele>
        <time>2016-07-23T11:58:24Z</time>
      </trkpt>
      <trkpt lat="42.52373" lon="0.14902">
        <ele>643.4</ele>
        <time>2016-07-23T11:58:26Z</time>
      </trkpt>
      <trkpt lat="42.52369" lon="0.14897">
        <ele>644</ele>
        <time>2016-07-23T11:58:28Z</time>
      </trkpt>
      <trkpt lat="42.52367" lon="0.14893">
        <ele>644.2</ele>
        <time>2016-07-23T11:58:29Z</time>
      </trkpt>
      <trkpt lat="42.52365" lon="0.14889">
        <ele>644.4</ele>
        <time>2016-07-23T11:58:30Z</time>
      </trkpt>
      <trkpt lat="42.52363" lon="0.14885">
        <ele>644.7</ele>
        <time>2016-07-23T11:58:31Z</time>
      </trkpt>
      <trkpt lat="42.5236" lon="0.1488">
        <ele>645</ele>
        <time>2016-07-23T11:58:32Z</time>
      </trkpt>
      <trkpt lat="42.52357" lon="0.14874">
        <ele>645.4</ele>
        <time>2016-07-23T11:58:33Z</time>
      </trkpt>
      <trkpt lat="42.52354" lon="0.14869">
        <ele>645.6</ele>
        <time>2016-07-23T11:58:34Z</time>
      </trkpt>
      <trkpt lat="42.52351" lon="0.14864">
        <ele>646</ele>
        <time>2016-07-23T11:58:35Z</time>
      </trkpt>
      <trkpt lat="42.52347" lon="0.1486">
        <ele>646.3</ele>
        <time>2016-07-23T11:58:36Z</time>
      </trkpt>
      <trkpt lat="42.52344" lon="0.14856">
        <ele>646.7</ele>
        <time>2016-07-23T11:58:37Z</time>
      </trkpt>
      <trkpt lat="42.52341" lon="0.14851">
        <ele>647</ele>
        <time>2016-07-23T11:58:38Z</time>
      </trkpt>
      <trkpt lat="42.52337" lon="0.14847">
        <ele>647.2</ele>
        <time>2016-07-23T11:58:39Z</time>
      </trkpt>
      <trkpt lat="42.52335" lon="0.14843">
        <ele>647.2</ele>
        <time>2016-07-23T11:58:40Z</time>
      </trkpt>
      <trkpt lat="42.52333" lon="0.14839">
        <ele>646.9</ele>
        <time>2016-07-23T11:58:41Z</time>
      </trkpt>
      <trkpt lat="42.52332" lon="0.14835">
        <ele>646.5</ele>
        <time>2016-07-23T11:58:42Z</time>
      </trkpt>
      <trkpt lat="42.52332" lon="0.14829">
        <ele>645.4</ele>
        <time>2016-07-23T11:58:44Z</time>
      </trkpt>
      <trkpt lat="42.5233" lon="0.14823">
        <ele>644.6</ele>
        <time>2016-07-23T11:58:46Z</time>
      </trkpt>
      <trkpt lat="42.52328" lon="0.14817">
        <ele>643.8</ele>
        <time>2016-07-23T11:58:48Z</time>
      </trkpt>
      <trkpt lat="42.52327" lon="0.14813">
        <ele>643.3</ele>
        <time>2016-07-23T11:58:49Z</time>
      </trkpt>
      <trkpt lat="42.52326" lon="0.14809">
        <ele>642.8</ele>
        <time>2016-07-23T11:58:50Z</time>
      </trkpt>
      <trkpt lat="42.52324" lon="0.14806">
        <ele>642.4</ele>
        <time>2016-07-23T11:58:51Z</time>
      </trkpt>
      <trkpt lat="42.52322" lon="0.14802">
        <ele>641.9</ele>
        <time>2016-07-23T11:58:52Z</time>
      </trkpt>
      <trkpt lat="42.52321" lon="0.14798">
        <ele>641.5</ele>
        <time>2016-07-23T11:58:53Z</time>
      </trkpt>
      <trkpt lat="42.52319" lon="0.14794">
        <ele>640.9</ele>
        <time>2016-07-23T11:58:54Z</time>
      </trkpt>
      <trkpt lat="42.52318" lon="0.1479">
        <ele>640.3</ele>
        <time>2016-07-23T11:58:55Z</time>
      </trkpt>
      <trkpt lat="42.52317" lon="0.14786">
        <ele>639.9</ele>
        <time>2016-07-23T11:58:56Z</time>
      </trkpt>
      <trkpt lat="42.52316" lon="0.14782">
        <ele>639.3</ele>
        <time>2016-07-23T11:58:57Z</time>
      </trkpt>
      <trkpt lat="42.52314" lon="0.14778">
        <ele>638.9</ele>
        <time>2016-07-23T11:58:58Z</time>
      </trkpt>
      <trkpt lat="42.52313" lon="0.14775">
        <ele>638.5</ele>
        <time>2016-07-23T11:58:59Z</time>
      </trkpt>
      <trkpt lat="42.52311" lon="0.14772">
        <ele>638.3</ele>
        <time>2016-07-23T11:59:00Z</time>
      </trkpt>
      <trkpt lat="42.52308" lon="0.1477">
        <ele>638.2</ele>
        <time>2016-07-23T11:59:01Z</time>
      </trkpt>
      <trkpt lat="42.52306" lon="0.14768">
        <ele>638.2</ele>
        <time>2016-07-23T11:59:02Z</time>
      </trkpt>
      <trkpt lat="42.52303" lon="0.14766">
        <ele>638.3</ele>
        <time>2016-07-23T11:59:03Z</time>
      </trkpt>
      <trkpt lat="42.523" lon="0.14765">
        <ele>638.5</ele>
        <time>2016-07-23T11:59:04Z</time>
      </trkpt>
      <trkpt lat="42.52297" lon="0.14764">
        <ele>638.7</ele>
        <time>2016-07-23T11:59:05Z</time>
      </trkpt>
      <trkpt lat="42.52293" lon="0.14763">
        <ele>639</ele>
        <time>2016-07-23T11:59:06Z</time>
      </trkpt>
      <trkpt lat="42.5229" lon="0.14763">
        <ele>639.3</ele>
        <time>2016-07-23T11:59:07Z</time>
      </trkpt>
      <trkpt lat="42.52287" lon="0.14762">
        <ele>639.9</ele>
        <time>2016-07-23T11:59:08Z</time>
      </trkpt>
      <trkpt lat="42.52283" lon="0.14761">
        <ele>640.5</ele>
        <time>2016-07-23T11:59:09Z</time>
      </trkpt>
      <trkpt lat="42.5228" lon="0.14761">
        <ele>641.2</ele>
        <time>2016-07-23T11:59:10Z</time>
      </trkpt>
      <trkpt lat="42.52277" lon="0.14761">
        <ele>641.9</ele>
        <time>2016-07-23T11:59:11Z</time>
      </trkpt>
      <trkpt lat="42.52274" lon="0.14761">
        <ele>642.7</ele>
        <time>2016-07-23T11:59:12Z</time>
      </trkpt>
      <trkpt lat="42.52271" lon="0.14762">
        <ele>643.4</ele>
        <time>2016-07-23T11:59:13Z</time>
      </trkpt>
      <trkpt lat="42.52268" lon="0.14761">
        <ele>643.9</ele>
        <time>2016-07-23T11:59:14Z</time>
      </trkpt>
      <trkpt lat="42.52266" lon="0.1476">
        <ele>644.2</ele>
        <time>2016-07-23T11:59:15Z</time>
      </trkpt>
      <trkpt lat="42.52263" lon="0.14758">
        <ele>644.3</ele>
        <time>2016-07-23T11:59:16Z</time>
      </trkpt>
      <trkpt lat="42.52259" lon="0.14755">
        <ele>644.2</ele>
        <time>2016-07-23T11:59:18Z</time>
      </trkpt>
      <trkpt lat="42.52256" lon="0.14752">
        <ele>644.1</ele>
        <time>2016-07-23T11:59:19Z</time>
      </trkpt>
      <trkpt lat="42.52254" lon="0.1475">
        <ele>644</ele>
        <time>2016-07-23T11:59:20Z</time>
      </trkpt>
      <trkpt lat="42.52251" lon="0.14748">
        <ele>644</ele>
        <time>2016-07-23T11:59:21Z</time>
      </trkpt>
      <trkpt lat="42.52247" lon="0.14745">
        <ele>644</ele>
        <time>2016-07-23T11:59:23Z</time>
      </trkpt>
      <trkpt lat="42.52245" lon="0.14744">
        <ele>644.1</ele>
        <time>2016-07-23T11:59:24Z</time>
      </trkpt>
      <trkpt lat="42.52242" lon="0.14742">
        <ele>644.1</ele>
        <time>2016-07-23T11:59:25Z</time>
      </trkpt>
      <trkpt lat="42.52239" lon="0.1474">
        <ele>644.1</ele>
        <time>2016-07-23T11:59:26Z</time>
      </trkpt>
      <trkpt lat="42.52236" lon="0.14738">
        <ele>644.1</ele>
        <time>2016-07-23T11:59:27Z</time>
      </trkpt>
      <trkpt lat="42.52234" lon="0.14736">
        <ele>644.1</ele>
        <time>2016-07-23T11:59:28Z</time>
      </trkpt>
      <trkpt lat="42.52231" lon="0.14735">
        <ele>644.1</ele>
        <time>2016-07-23T11:59:29Z</time>
      </trkpt>
      <trkpt lat="42.52228" lon="0.14733">
        <ele>644.2</ele>
        <time>2016-07-23T11:59:30Z</time>
      </trkpt>
      <trkpt lat="42.52224" lon="0.14731">
        <ele>644.2</ele>
        <time>2016-07-23T11:59:31Z</time>
      </trkpt>
      <trkpt lat="42.5222" lon="0.14728">
        <ele>644.2</ele>
        <time>2016-07-23T11:59:32Z</time>
      </trkpt>
      <trkpt lat="42.52216" lon="0.14725">
        <ele>644.1</ele>
        <time>2016-07-23T11:59:33Z</time>
      </trkpt>
      <trkpt lat="42.52212" lon="0.14723">
        <ele>644.1</ele>
        <time>2016-07-23T11:59:34Z</time>
      </trkpt>
      <trkpt lat="42.52208" lon="0.1472">
        <ele>644</ele>
        <time>2016-07-23T11:59:35Z</time>
      </trkpt>
      <trkpt lat="42.52204" lon="0.14717">
        <ele>644.4</ele>
        <time>2016-07-23T11:59:36Z</time>
      </trkpt>
      <trkpt lat="42.522" lon="0.14714">
        <ele>644.8</ele>
        <time>2016-07-23T11:59:37Z</time>
      </trkpt>
      <trkpt lat="42.52196" lon="0.14711">
        <ele>645.1</ele>
        <time>2016-07-23T11:59:38Z</time>
      </trkpt>
      <trkpt lat="42.52191" lon="0.14707">
        <ele>645.6</ele>
        <time>2016-07-23T11:59:39Z</time>
      </trkpt>
      <trkpt lat="42.52187" lon="0.14702">
        <ele>646.4</ele>
        <time>2016-07-23T11:59:40Z</time>
      </trkpt>
      <trkpt lat="42.52183" lon="0.14698">
        <ele>647.1</ele>
        <time>2016-07-23T11:59:41Z</time>
      </trkpt>
      <trkpt lat="42.52178" lon="0.14693">
        <ele>647.7</ele>
        <time>2016-07-23T11:59:42Z</time>
      </trkpt>
      <trkpt lat="42.52173" lon="0.14688">
        <ele>648.2</ele>
        <time>2016-07-23T11:59:43Z</time>
      </trkpt>
      <trkpt lat="42.52169" lon="0.14683">
        <ele>648.6</ele>
        <time>2016-07-23T11:59:44Z</time>
      </trkpt>
      <trkpt lat="42.52164" lon="0.14678">
        <ele>648.9</ele>
        <time>2016-07-23T11:59:45Z</time>
      </trkpt>
      <trkpt lat="42.5216" lon="0.14672">
        <ele>649.2</ele>
        <time>2016-07-23T11:59:46Z</time>
      </trkpt>
      <trkpt lat="42.52155" lon="0.14668">
        <ele>649.4</ele>
        <time>2016-07-23T11:59:47Z</time>
      </trkpt>
      <trkpt lat="42.52151" lon="0.14663">
        <ele>649.4</ele>
        <time>2016-07-23T11:59:48Z</time>
      </trkpt>
      <trkpt lat="42.52147" lon="0.14658">
        <ele>649.3</ele>
        <time>2016-07-23T11:59:49Z</time>
      </trkpt>
      <trkpt lat="42.52142" lon="0.14653">
        <ele>649.4</ele>
        <time>2016-07-23T11:59:50Z</time>
      </trkpt>
      <trkpt lat="42.52138" lon="0.14648">
        <ele>649.3</ele>
        <time>2016-07-23T11:59:51Z</time>
      </trkpt>
      <trkpt lat="42.52133" lon="0.14643">
        <ele>649.2</ele>
        <time>2016-07-23T11:59:52Z</time>
      </trkpt>
      <trkpt lat="42.52129" lon="0.14636">
        <ele>648.2</ele>
        <time>2016-07-23T11:59:53Z</time>
      </trkpt>
      <trkpt lat="42.52123" lon="0.14629">
        <ele>648</ele>
        <time>2016-07-23T11:59:54Z</time>
      </trkpt>
      <trkpt lat="42.52117" lon="0.14625">
        <ele>649.9</ele>
        <time>2016-07-23T11:59:55Z</time>
      </trkpt>
      <trkpt lat="42.52113" lon="0.1462">
        <ele>651.3</ele>
        <time>2016-07-23T11:59:56Z</time>
      </trkpt>
      <trkpt lat="42.52109" lon="0.14615">
        <ele>652.6</ele>
        <time>2016-07-23T11:59:57Z</time>
      </trkpt>
      <trkpt lat="42.52104" lon="0.1461">
        <ele>654.4</ele>
        <time>2016-07-23T11:59:58Z</time>
      </trkpt>
      <trkpt lat="42.521" lon="0.14604">
        <ele>655.8</ele>
        <time>2016-07-23T11:59:59Z</time>
      </trkpt>
      <trkpt lat="42.52095" lon="0.146">
        <ele>657.5</ele>
        <time>2016-07-23T12:00:00Z</time>
      </trkpt>
      <trkpt lat="42.52091" lon="0.14593">
        <ele>658.6</ele>
        <time>2016-07-23T12:00:01Z</time>
      </trkpt>
      <trkpt lat="42.52087" lon="0.14585">
        <ele>659.1</ele>
        <time>2016-07-23T12:00:02Z</time>
      </trkpt>
      <trkpt lat="42.52084" lon="0.14577">
        <ele>659.6</ele>
        <time>2016-07-23T12:00:03Z</time>
      </trkpt>
      <trkpt lat="42.52082" lon="0.14567">
        <ele>659.3</ele>
        <time>2016-07-23T12:00:04Z</time>
      </trkpt>
      <trkpt lat="42.5208" lon="0.14559">
        <ele>659.2</ele>
        <time>2016-07-23T12:00:05Z</time>
      </trkpt>
      <trkpt lat="42.52077" lon="0.1455">
        <ele>659.3</ele>
        <time>2016-07-23T12:00:06Z</time>
      </trkpt>
      <trkpt lat="42.52074" lon="0.14542">
        <ele>659.7</ele>
        <time>2016-07-23T12:00:07Z</time>
      </trkpt>
      <trkpt lat="42.52072" lon="0.14533">
        <ele>659.9</ele>
        <time>2016-07-23T12:00:08Z</time>
      </trkpt>
      <trkpt lat="42.52069" lon="0.14525">
        <ele>660.2</ele>
        <time>2016-07-23T12:00:09Z</time>
      </trkpt>
      <trkpt lat="42.52067" lon="0.14517">
        <ele>660.1</ele>
        <time>2016-07-23T12:00:10Z</time>
      </trkpt>
      <trkpt lat="42.52067" lon="0.14508">
        <ele>659.5</ele>
        <time>2016-07-23T12:00:11Z</time>
      </trkpt>
      <trkpt lat="42.52066" lon="0.14501">
        <ele>659</ele>
        <time>2016-07-23T12:00:12Z</time>
      </trkpt>
      <trkpt lat="42.52065" lon="0.14496">
        <ele>658.6</ele>
        <time>2016-07-23T12:00:13Z</time>
      </trkpt>
      <trkpt lat="42.52065" lon="0.14491">
        <ele>658.4</ele>
        <time>2016-07-23T12:00:14Z</time>
      </trkpt>
      <trkpt lat="42.52064" lon="0.14487">
        <ele>658.1</ele>
        <time>2016-07-23T12:00:15Z</time>
      </trkpt>
      <trkpt lat="42.52063" lon="0.14483">
        <ele>657.8</ele>
        <time>2016-07-23T12:00:16Z</time>
      </trkpt>
      <trkpt lat="42.52063" lon="0.14478">
        <ele>657.5</ele>
        <time>2016-07-23T12:00:17Z</time>
      </trkpt>
      <trkpt lat="42.52063" lon="0.14473">
        <ele>657.1</ele>
        <time>2016-07-23T12:00:18Z</time>
      </trkpt>
      <trkpt lat="42.52062" lon="0.14468">
        <ele>656.5</ele>
        <time>2016-07-23T12:00:19Z</time>
      </trkpt>
      <trkpt lat="42.52062" lon="0.14461">
        <ele>655.8</ele>
        <time>2016-07-23T12:00:20Z</time>
      </trkpt>
      <trkpt lat="42.52062" lon="0.14455">
        <ele>655.2</ele>
        <time>2016-07-23T12:00:21Z</time>
      </trkpt>
      <trkpt lat="42.52061" lon="0.14448">
        <ele>654.6</ele>
        <time>2016-07-23T12:00:22Z</time>
      </trkpt>
      <trkpt lat="42.5206" lon="0.14441">
        <ele>654</ele>
        <time>2016-07-23T12:00:23Z</time>
      </trkpt>
      <trkpt lat="42.5206" lon="0.14433">
        <ele>653.4</ele>
        <time>2016-07-23T12:00:24Z</time>
      </trkpt>
      <trkpt lat="42.52059" lon="0.14425">
        <ele>652.8</ele>
        <time>2016-07-23T12:00:25Z</time>
      </trkpt>
      <trkpt lat="42.52058" lon="0.14418">
        <ele>652.1</ele>
        <time>2016-07-23T12:00:26Z</time>
      </trkpt>
      <trkpt lat="42.52057" lon="0.1441">
        <ele>651.3</ele>
        <time>2016-07-23T12:00:27Z</time>
      </trkpt>
      <trkpt lat="42.52057" lon="0.14402">
        <ele>650.4</ele>
        <time>2016-07-23T12:00:28Z</time>
      </trkpt>
      <trkpt lat="42.52057" lon="0.14394">
        <ele>649.5</ele>
        <time>2016-07-23T12:00:29Z</time>
      </trkpt>
      <trkpt lat="42.52056" lon="0.14386">
        <ele>648.8</ele>
        <time>2016-07-23T12:00:30Z</time>
      </trkpt>
      <trkpt lat="42.52055" lon="0.14377">
        <ele>648.1</ele>
        <time>2016-07-23T12:00:31Z</time>
      </trkpt>
      <trkpt lat="42.52054" lon="0.14368">
        <ele>646.8</ele>
        <time>2016-07-23T12:00:32Z</time>
      </trkpt>
      <trkpt lat="42.52052" lon="0.14359">
        <ele>645.5</ele>
        <time>2016-07-23T12:00:33Z</time>
      </trkpt>
      <trkpt lat="42.52052" lon="0.14347">
        <ele>643.2</ele>
        <time>2016-07-23T12:00:34Z</time>
      </trkpt>
      <trkpt lat="42.52051" lon="0.14337">
        <ele>641.6</ele>
        <time>2016-07-23T12:00:35Z</time>
      </trkpt>
      <trkpt lat="42.5205" lon="0.14328">
        <ele>640.1</ele>
        <time>2016-07-23T12:00:36Z</time>
      </trkpt>
      <trkpt lat="42.52048" lon="0.1432">
        <ele>639</ele>
        <time>2016-07-23T12:00:37Z</time>
      </trkpt>
      <trkpt lat="42.52043" lon="0.14312">
        <ele>638.3</ele>
        <time>2016-07-23T12:00:38Z</time>
      </trkpt>
      <trkpt lat="42.52039" lon="0.14303">
        <ele>636.3</ele>
        <time>2016-07-23T12:00:39Z</time>
      </trkpt>
      <trkpt lat="42.52035" lon="0.14295">
        <ele>634.4</ele>
        <time>2016-07-23T12:00:40Z</time>
      </trkpt>
      <trkpt lat="42.52033" lon="0.14285">
        <ele>632.9</ele>
        <time>2016-07-23T12:00:41Z</time>
      </trkpt>
      <trkpt lat="42.52031" lon="0.14276">
        <ele>631.7</ele>
        <time>2016-07-23T12:00:42Z</time>
      </trkpt>
      <trkpt lat="42.52029" lon="0.14266">
        <ele>630.4</ele>
        <time>2016-07-23T12:00:43Z</time>
      </trkpt>
      <trkpt lat="42.52027" lon="0.14258">
        <ele>629.3</ele>
        <time>2016-07-23T12:00:44Z</time>
      </trkpt>
      <trkpt lat="42.52025" lon="0.14251">
        <ele>628.4</ele>
        <time>2016-07-23T12:00:45Z</time>
      </trkpt>
      <trkpt lat="42.52023" lon="0.14242">
        <ele>627.3</ele>
        <time>2016-07-23T12:00:46Z</time>
      </trkpt>
      <trkpt lat="42.5202" lon="0.14235">
        <ele>626.4</ele>
        <time>2016-07-23T12:00:47Z</time>
      </trkpt>
      <trkpt lat="42.52017" lon="0.14227">
        <ele>625.5</ele>
        <time>2016-07-23T12:00:48Z</time>
      </trkpt>
      <trkpt lat="42.52014" lon="0.14221">
        <ele>624.7</ele>
        <time>2016-07-23T12:00:49Z</time>
      </trkpt>
      <trkpt lat="42.5201" lon="0.14214">
        <ele>624</ele>
        <time>2016-07-23T12:00:50Z</time>
      </trkpt>
      <trkpt lat="42.52005" lon="0.14209">
        <ele>623.6</ele>
        <time>2016-07-23T12:00:51Z</time>
      </trkpt>
      <trkpt lat="42.51998" lon="0.14206">
        <ele>623.5</ele>
        <time>2016-07-23T12:00:52Z</time>
      </trkpt>
      <trkpt lat="42.51993" lon="0.14206">
        <ele>623.6</ele>
        <time>2016-07-23T12:00:53Z</time>
      </trkpt>
      <trkpt lat="42.51984" lon="0.14211">
        <ele>624</ele>
        <time>2016-07-23T12:00:54Z</time>
      </trkpt>
      <trkpt lat="42.51979" lon="0.14213">
        <ele>624.2</ele>
        <time>2016-07-23T12:00:55Z</time>
      </trkpt>
      <trkpt lat="42.51973" lon="0.14217">
        <ele>624.6</ele>
        <time>2016-07-23T12:00:56Z</time>
      </trkpt>
      <trkpt lat="42.5197" lon="0.14219">
        <ele>624.9</ele>
        <time>2016-07-23T12:00:57Z</time>
      </trkpt>
      <trkpt lat="42.51966" lon="0.14222">
        <ele>625.1</ele>
        <time>2016-07-23T12:00:58Z</time>
      </trkpt>
      <trkpt lat="42.51961" lon="0.14225">
        <ele>625.4</ele>
        <time>2016-07-23T12:00:59Z</time>
      </trkpt>
      <trkpt lat="42.51957" lon="0.14228">
        <ele>625.6</ele>
        <time>2016-07-23T12:01:00Z</time>
      </trkpt>
      <trkpt lat="42.51953" lon="0.14232">
        <ele>625.6</ele>
        <time>2016-07-23T12:01:01Z</time>
      </trkpt>
      <trkpt lat="42.51948" lon="0.14235">
        <ele>625.6</ele>
        <time>2016-07-23T12:01:02Z</time>
      </trkpt>
      <trkpt lat="42.51944" lon="0.14239">
        <ele>625.6</ele>
        <time>2016-07-23T12:01:03Z</time>
      </trkpt>
      <trkpt lat="42.5194" lon="0.14243">
        <ele>625.6</ele>
        <time>2016-07-23T12:01:04Z</time>
      </trkpt>
      <trkpt lat="42.51937" lon="0.14248">
        <ele>625.7</ele>
        <time>2016-07-23T12:01:05Z</time>
      </trkpt>
      <trkpt lat="42.51934" lon="0.14253">
        <ele>625.7</ele>
        <time>2016-07-23T12:01:06Z</time>
      </trkpt>
      <trkpt lat="42.51932" lon="0.14257">
        <ele>625.8</ele>
        <time>2016-07-23T12:01:07Z</time>
      </trkpt>
      <trkpt lat="42.51929" lon="0.14262">
        <ele>625.9</ele>
        <time>2016-07-23T12:01:08Z</time>
      </trkpt>
      <trkpt lat="42.51926" lon="0.14267">
        <ele>625.8</ele>
        <time>2016-07-23T12:01:09Z</time>
      </trkpt>
      <trkpt lat="42.51921" lon="0.14274">
        <ele>625.7</ele>
        <time>2016-07-23T12:01:10Z</time>
      </trkpt>
      <trkpt lat="42.51918" lon="0.14279">
        <ele>625.7</ele>
        <time>2016-07-23T12:01:11Z</time>
      </trkpt>
      <trkpt lat="42.51915" lon="0.14285">
        <ele>625.5</ele>
        <time>2016-07-23T12:01:12Z</time>
      </trkpt>
      <trkpt lat="42.51913" lon="0.14289">
        <ele>625.4</ele>
        <time>2016-07-23T12:01:13Z</time>
      </trkpt>
      <trkpt lat="42.5191" lon="0.14294">
        <ele>625.4</ele>
        <time>2016-07-23T12:01:14Z</time>
      </trkpt>
      <trkpt lat="42.51907" lon="0.14299">
        <ele>625.3</ele>
        <time>2016-07-23T12:01:15Z</time>
      </trkpt>
      <trkpt lat="42.51902" lon="0.14305">
        <ele>625.2</ele>
        <time>2016-07-23T12:01:16Z</time>
      </trkpt>
      <trkpt lat="42.519" lon="0.14311">
        <ele>625.2</ele>
        <time>2016-07-23T12:01:17Z</time>
      </trkpt>
      <trkpt lat="42.51897" lon="0.14318">
        <ele>625.1</ele>
        <time>2016-07-23T12:01:18Z</time>
      </trkpt>
      <trkpt lat="42.51894" lon="0.14325">
        <ele>625</ele>
        <time>2016-07-23T12:01:19Z</time>
      </trkpt>
      <trkpt lat="42.51892" lon="0.1433">
        <ele>625</ele>
        <time>2016-07-23T12:01:20Z</time>
      </trkpt>
      <trkpt lat="42.51891" lon="0.14335">
        <ele>624.8</ele>
        <time>2016-07-23T12:01:21Z</time>
      </trkpt>
      <trkpt lat="42.51888" lon="0.14339">
        <ele>624.4</ele>
        <time>2016-07-23T12:01:22Z</time>
      </trkpt>
      <trkpt lat="42.51883" lon="0.14342">
        <ele>623.4</ele>
        <time>2016-07-23T12:01:23Z</time>
      </trkpt>
      <trkpt lat="42.51878" lon="0.14345">
        <ele>622.4</ele>
        <time>2016-07-23T12:01:24Z</time>
      </trkpt>
      <trkpt lat="42.51873" lon="0.1435">
        <ele>621.6</ele>
        <time>2016-07-23T12:01:25Z</time>
      </trkpt>
      <trkpt lat="42.51869" lon="0.14355">
        <ele>621.5</ele>
        <time>2016-07-23T12:01:26Z</time>
      </trkpt>
      <trkpt lat="42.51862" lon="0.14361">
        <ele>621.2</ele>
        <time>2016-07-23T12:01:27Z</time>
      </trkpt>
      <trkpt lat="42.51856" lon="0.14368">
        <ele>620.8</ele>
        <time>2016-07-23T12:01:28Z</time>
      </trkpt>
      <trkpt lat="42.51849" lon="0.14374">
        <ele>620.5</ele>
        <time>2016-07-23T12:01:29Z</time>
      </trkpt>
      <trkpt lat="42.51843" lon="0.14379">
        <ele>620.4</ele>
        <time>2016-07-23T12:01:30Z</time>
      </trkpt>
      <trkpt lat="42.51837" lon="0.14384">
        <ele>620.4</ele>
        <time>2016-07-23T12:01:31Z</time>
      </trkpt>
      <trkpt lat="42.51831" lon="0.14389">
        <ele>620.4</ele>
        <time>2016-07-23T12:01:32Z</time>
      </trkpt>
      <trkpt lat="42.51825" lon="0.14394">
        <ele>620.2</ele>
        <time>2016-07-23T12:01:33Z</time>
      </trkpt>
      <trkpt lat="42.5182" lon="0.14399">
        <ele>619.9</ele>
        <time>2016-07-23T12:01:34Z</time>
      </trkpt>
      <trkpt lat="42.51814" lon="0.14403">
        <ele>619.6</ele>
        <time>2016-07-23T12:01:35Z</time>
      </trkpt>
      <trkpt lat="42.51809" lon="0.14408">
        <ele>619.3</ele>
        <time>2016-07-23T12:01:36Z</time>
      </trkpt>
      <trkpt lat="42.51804" lon="0.14412">
        <ele>618.8</ele>
        <time>2016-07-23T12:01:37Z</time>
      </trkpt>
      <trkpt lat="42.51799" lon="0.14417">
        <ele>618.4</ele>
        <time>2016-07-23T12:01:38Z</time>
      </trkpt>
      <trkpt lat="42.51793" lon="0.14421">
        <ele>617.8</ele>
        <time>2016-07-23T12:01:39Z</time>
      </trkpt>
      <trkpt lat="42.51788" lon="0.14424">
        <ele>617.6</ele>
        <time>2016-07-23T12:01:40Z</time>
      </trkpt>
      <trkpt lat="42.51783" lon="0.14427">
        <ele>617.7</ele>
        <time>2016-07-23T12:01:41Z</time>
      </trkpt>
      <trkpt lat="42.5178" lon="0.14428">
        <ele>617.8</ele>
        <time>2016-07-23T12:01:42Z</time>
      </trkpt>
      <trkpt lat="42.51776" lon="0.14429">
        <ele>617.8</ele>
        <time>2016-07-23T12:01:43Z</time>
      </trkpt>
      <trkpt lat="42.51773" lon="0.14429">
        <ele>617.9</ele>
        <time>2016-07-23T12:01:44Z</time>
      </trkpt>
      <trkpt lat="42.51769" lon="0.1443">
        <ele>617.9</ele>
        <time>2016-07-23T12:01:45Z</time>
      </trkpt>
      <trkpt lat="42.51765" lon="0.1443">
        <ele>618</ele>
        <time>2016-07-23T12:01:46Z</time>
      </trkpt>
      <trkpt lat="42.51762" lon="0.14431">
        <ele>618</ele>
        <time>2016-07-23T12:01:47Z</time>
      </trkpt>
      <trkpt lat="42.51757" lon="0.14432">
        <ele>618.1</ele>
        <time>2016-07-23T12:01:49Z</time>
      </trkpt>
      <trkpt lat="42.51753" lon="0.14433">
        <ele>618.1</ele>
        <time>2016-07-23T12:01:50Z</time>
      </trkpt>
      <trkpt lat="42.51747" lon="0.14434">
        <ele>618.2</ele>
        <time>2016-07-23T12:01:52Z</time>
      </trkpt>
      <trkpt lat="42.51744" lon="0.14435">
        <ele>618.2</ele>
        <time>2016-07-23T12:01:53Z</time>
      </trkpt>
      <trkpt lat="42.51741" lon="0.14436">
        <ele>618.2</ele>
        <time>2016-07-23T12:01:54Z</time>
      </trkpt>
      <trkpt lat="42.51736" lon="0.14437">
        <ele>618.3</ele>
        <time>2016-07-23T12:01:56Z</time>
      </trkpt>
      <trkpt lat="42.51733" lon="0.1444">
        <ele>618.3</ele>
        <time>2016-07-23T12:01:58Z</time>
      </trkpt>
      <trkpt lat="42.51728" lon="0.14444">
        <ele>618.2</ele>
        <time>2016-07-23T12:02:00Z</time>
      </trkpt>
      <trkpt lat="42.51725" lon="0.14446">
        <ele>618.2</ele>
        <time>2016-07-23T12:02:01Z</time>
      </trkpt>
      <trkpt lat="42.51721" lon="0.1445">
        <ele>618.2</ele>
        <time>2016-07-23T12:02:02Z</time>
      </trkpt>
      <trkpt lat="42.51717" lon="0.14453">
        <ele>618.1</ele>
        <time>2016-07-23T12:02:03Z</time>
      </trkpt>
      <trkpt lat="42.51712" lon="0.14461">
        <ele>618</ele>
        <time>2016-07-23T12:02:04Z</time>
      </trkpt>
      <trkpt lat="42.51708" lon="0.14466">
        <ele>618</ele>
        <time>2016-07-23T12:02:05Z</time>
      </trkpt>
      <trkpt lat="42.51703" lon="0.14471">
        <ele>617.9</ele>
        <time>2016-07-23T12:02:06Z</time>
      </trkpt>
      <trkpt lat="42.51699" lon="0.14475">
        <ele>617.9</ele>
        <time>2016-07-23T12:02:07Z</time>
      </trkpt>
      <trkpt lat="42.51695" lon="0.14479">
        <ele>617.8</ele>
        <time>2016-07-23T12:02:08Z</time>
      </trkpt>
      <trkpt lat="42.51691" lon="0.14483">
        <ele>617.8</ele>
        <time>2016-07-23T12:02:09Z</time>
      </trkpt>
      <trkpt lat="42.51687" lon="0.14486">
        <ele>617.7</ele>
        <time>2016-07-23T12:02:10Z</time>
      </trkpt>
      <trkpt lat="42.51683" lon="0.14491">
        <ele>617.7</ele>
        <time>2016-07-23T12:02:11Z</time>
      </trkpt>
      <trkpt lat="42.51679" lon="0.14496">
        <ele>617.6</ele>
        <time>2016-07-23T12:02:12Z</time>
      </trkpt>
      <trkpt lat="42.51674" lon="0.145">
        <ele>617.6</ele>
        <time>2016-07-23T12:02:13Z</time>
      </trkpt>
      <trkpt lat="42.5167" lon="0.14503">
        <ele>617.5</ele>
        <time>2016-07-23T12:02:14Z</time>
      </trkpt>
      <trkpt lat="42.51665" lon="0.14505">
        <ele>617.5</ele>
        <time>2016-07-23T12:02:15Z</time>
      </trkpt>
      <trkpt lat="42.5166" lon="0.14506">
        <ele>617.4</ele>
        <time>2016-07-23T12:02:16Z</time>
      </trkpt>
      <trkpt lat="42.51655" lon="0.14507">
        <ele>617.4</ele>
        <time>2016-07-23T12:02:17Z</time>
      </trkpt>
      <trkpt lat="42.5165" lon="0.14508">
        <ele>617.3</ele>
        <time>2016-07-23T12:02:18Z</time>
      </trkpt>
      <trkpt lat="42.51646" lon="0.1451">
        <ele>617.3</ele>
        <time>2016-07-23T12:02:19Z</time>
      </trkpt>
      <trkpt lat="42.51641" lon="0.14514">
        <ele>617.2</ele>
        <time>2016-07-23T12:02:20Z</time>
      </trkpt>
      <trkpt lat="42.51636" lon="0.14518">
        <ele>617.1</ele>
        <time>2016-07-23T12:02:21Z</time>
      </trkpt>
      <trkpt lat="42.51631" lon="0.14522">
        <ele>617.1</ele>
        <time>2016-07-23T12:02:22Z</time>
      </trkpt>
      <trkpt lat="42.51626" lon="0.14524">
        <ele>617</ele>
        <time>2016-07-23T12:02:23Z</time>
      </trkpt>
      <trkpt lat="42.5162" lon="0.14528">
        <ele>617</ele>
        <time>2016-07-23T12:02:24Z</time>
      </trkpt>
      <trkpt lat="42.51616" lon="0.14531">
        <ele>616.9</ele>
        <time>2016-07-23T12:02:25Z</time>
      </trkpt>
      <trkpt lat="42.51612" lon="0.14535">
        <ele>616.9</ele>
        <time>2016-07-23T12:02:26Z</time>
      </trkpt>
      <trkpt lat="42.51609" lon="0.1454">
        <ele>616.8</ele>
        <time>2016-07-23T12:02:27Z</time>
      </trkpt>
      <trkpt lat="42.51605" lon="0.14544">
        <ele>616.8</ele>
        <time>2016-07-23T12:02:28Z</time>
      </trkpt>
      <trkpt lat="42.51602" lon="0.14548">
        <ele>616.8</ele>
        <time>2016-07-23T12:02:29Z</time>
      </trkpt>
      <trkpt lat="42.51598" lon="0.14551">
        <ele>616.8</ele>
        <time>2016-07-23T12:02:30Z</time>
      </trkpt>
      <trkpt lat="42.51594" lon="0.14555">
        <ele>616.7</ele>
        <time>2016-07-23T12:02:31Z</time>
      </trkpt>
      <trkpt lat="42.5159" lon="0.14558">
        <ele>616.7</ele>
        <time>2016-07-23T12:02:32Z</time>
      </trkpt>
      <trkpt lat="42.51586" lon="0.14561">
        <ele>616.6</ele>
        <time>2016-07-23T12:02:33Z</time>
      </trkpt>
      <trkpt lat="42.51582" lon="0.14563">
        <ele>616.6</ele>
        <time>2016-07-23T12:02:34Z</time>
      </trkpt>
      <trkpt lat="42.51578" lon="0.14566">
        <ele>616.6</ele>
        <time>2016-07-23T12:02:35Z</time>
      </trkpt>
      <trkpt lat="42.51574" lon="0.14569">
        <ele>616.5</ele>
        <time>2016-07-23T12:02:36Z</time>
      </trkpt>
      <trkpt lat="42.5157" lon="0.14572">
        <ele>616.5</ele>
        <time>2016-07-23T12:02:37Z</time>
      </trkpt>
      <trkpt lat="42.51567" lon="0.14575">
        <ele>616.4</ele>
        <time>2016-07-23T12:02:38Z</time>
      </trkpt>
      <trkpt lat="42.51564" lon="0.1458">
        <ele>616.4</ele>
        <time>2016-07-23T12:02:39Z</time>
      </trkpt>
      <trkpt lat="42.51561" lon="0.14584">
        <ele>616.3</ele>
        <time>2016-07-23T12:02:40Z</time>
      </trkpt>
      <trkpt lat="42.51556" lon="0.1459">
        <ele>616.3</ele>
        <time>2016-07-23T12:02:41Z</time>
      </trkpt>
      <trkpt lat="42.51552" lon="0.14595">
        <ele>616.2</ele>
        <time>2016-07-23T12:02:42Z</time>
      </trkpt>
      <trkpt lat="42.51548" lon="0.146">
        <ele>616.1</ele>
        <time>2016-07-23T12:02:43Z</time>
      </trkpt>
      <trkpt lat="42.51545" lon="0.14606">
        <ele>616.1</ele>
        <time>2016-07-23T12:02:44Z</time>
      </trkpt>
      <trkpt lat="42.51542" lon="0.14609">
        <ele>616</ele>
        <time>2016-07-23T12:02:45Z</time>
      </trkpt>
      <trkpt lat="42.51537" lon="0.14612">
        <ele>615.9</ele>
        <time>2016-07-23T12:02:46Z</time>
      </trkpt>
      <trkpt lat="42.51533" lon="0.14614">
        <ele>615.8</ele>
        <time>2016-07-23T12:02:47Z</time>
      </trkpt>
      <trkpt lat="42.51529" lon="0.14616">
        <ele>615.7</ele>
        <time>2016-07-23T12:02:48Z</time>
      </trkpt>
      <trkpt lat="42.51524" lon="0.14616">
        <ele>615.6</ele>
        <time>2016-07-23T12:02:49Z</time>
      </trkpt>
      <trkpt lat="42.51519" lon="0.14617">
        <ele>615.5</ele>
        <time>2016-07-23T12:02:50Z</time>
      </trkpt>
      <trkpt lat="42.51514" lon="0.14618">
        <ele>615.4</ele>
        <time>2016-07-23T12:02:51Z</time>
      </trkpt>
      <trkpt lat="42.51508" lon="0.14618">
        <ele>615.2</ele>
        <time>2016-07-23T12:02:52Z</time>
      </trkpt>
      <trkpt lat="42.51504" lon="0.1462">
        <ele>615.1</ele>
        <time>2016-07-23T12:02:53Z</time>
      </trkpt>
      <trkpt lat="42.51498" lon="0.14621">
        <ele>615</ele>
        <time>2016-07-23T12:02:54Z</time>
      </trkpt>
      <trkpt lat="42.51493" lon="0.14622">
        <ele>614.8</ele>
        <time>2016-07-23T12:02:55Z</time>
      </trkpt>
      <trkpt lat="42.51488" lon="0.14623">
        <ele>614.7</ele>
        <time>2016-07-23T12:02:56Z</time>
      </trkpt>
      <trkpt lat="42.51483" lon="0.14626">
        <ele>614.7</ele>
        <time>2016-07-23T12:02:57Z</time>
      </trkpt>
      <trkpt lat="42.51477" lon="0.14627">
        <ele>614.6</ele>
        <time>2016-07-23T12:02:58Z</time>
      </trkpt>
      <trkpt lat="42.51471" lon="0.1463">
        <ele>614.7</ele>
        <time>2016-07-23T12:02:59Z</time>
      </trkpt>
      <trkpt lat="42.51466" lon="0.14632">
        <ele>614.7</ele>
        <time>2016-07-23T12:03:00Z</time>
      </trkpt>
      <trkpt lat="42.5146" lon="0.14635">
        <ele>614.8</ele>
        <time>2016-07-23T12:03:01Z</time>
      </trkpt>
      <trkpt lat="42.51454" lon="0.14637">
        <ele>614.8</ele>
        <time>2016-07-23T12:03:02Z</time>
      </trkpt>
      <trkpt lat="42.51449" lon="0.14639">
        <ele>615</ele>
        <time>2016-07-23T12:03:03Z</time>
      </trkpt>
      <trkpt lat="42.51443" lon="0.1464">
        <ele>615</ele>
        <time>2016-07-23T12:03:04Z</time>
      </trkpt>
      <trkpt lat="42.51437" lon="0.14642">
        <ele>615.2</ele>
        <time>2016-07-23T12:03:05Z</time>
      </trkpt>
      <trkpt lat="42.51432" lon="0.14643">
        <ele>615.2</ele>
        <time>2016-07-23T12:03:06Z</time>
      </trkpt>
      <trkpt lat="42.51427" lon="0.14643">
        <ele>615.2</ele>
        <time>2016-07-23T12:03:07Z</time>
      </trkpt>
      <trkpt lat="42.51421" lon="0.14642">
        <ele>615.1</ele>
        <time>2016-07-23T12:03:08Z</time>
      </trkpt>
      <trkpt lat="42.51416" lon="0.1464">
        <ele>615</ele>
        <time>2016-07-23T12:03:09Z</time>
      </trkpt>
      <trkpt lat="42.51411" lon="0.14638">
        <ele>614.9</ele>
        <time>2016-07-23T12:03:10Z</time>
      </trkpt>
      <trkpt lat="42.51406" lon="0.14638">
        <ele>614.8</ele>
        <time>2016-07-23T12:03:11Z</time>
      </trkpt>
      <trkpt lat="42.51401" lon="0.14636">
        <ele>614.7</ele>
        <time>2016-07-23T12:03:12Z</time>
      </trkpt>
      <trkpt lat="42.51395" lon="0.14635">
        <ele>614.6</ele>
        <time>2016-07-23T12:03:13Z</time>
      </trkpt>
      <trkpt lat="42.5139" lon="0.14634">
        <ele>614.6</ele>
        <time>2016-07-23T12:03:14Z</time>
      </trkpt>
      <trkpt lat="42.51385" lon="0.14633">
        <ele>614.5</ele>
        <time>2016-07-23T12:03:15Z</time>
      </trkpt>
      <trkpt lat="42.51379" lon="0.14631">
        <ele>614.3</ele>
        <time>2016-07-23T12:03:16Z</time>
      </trkpt>
      <trkpt lat="42.51374" lon="0.14629">
        <ele>614.3</ele>
        <time>2016-07-23T12:03:17Z</time>
      </trkpt>
      <trkpt lat="42.51369" lon="0.14629">
        <ele>614.4</ele>
        <time>2016-07-23T12:03:18Z</time>
      </trkpt>
      <trkpt lat="42.51364" lon="0.14627">
        <ele>614.4</ele>
        <time>2016-07-23T12:03:19Z</time>
      </trkpt>
      <trkpt lat="42.5136" lon="0.14626">
        <ele>614.4</ele>
        <time>2016-07-23T12:03:20Z</time>
      </trkpt>
      <trkpt lat="42.51355" lon="0.14624">
        <ele>614.5</ele>
        <time>2016-07-23T12:03:21Z</time>
      </trkpt>
      <trkpt lat="42.5135" lon="0.14624">
        <ele>614.6</ele>
        <time>2016-07-23T12:03:22Z</time>
      </trkpt>
      <trkpt lat="42.51345" lon="0.14625">
        <ele>614.7</ele>
        <time>2016-07-23T12:03:23Z</time>
      </trkpt>
      <trkpt lat="42.51341" lon="0.14627">
        <ele>615</ele>
        <time>2016-07-23T12:03:24Z</time>
      </trkpt>
      <trkpt lat="42.51337" lon="0.14629">
        <ele>615.3</ele>
        <time>2016-07-23T12:03:25Z</time>
      </trkpt>
      <trkpt lat="42.51334" lon="0.14635">
        <ele>616</ele>
        <time>2016-07-23T12:03:26Z</time>
      </trkpt>
      <trkpt lat="42.51331" lon="0.14638">
        <ele>616.4</ele>
        <time>2016-07-23T12:03:27Z</time>
      </trkpt>
      <trkpt lat="42.51327" lon="0.14642">
        <ele>617</ele>
        <time>2016-07-23T12:03:28Z</time>
      </trkpt>
      <trkpt lat="42.51324" lon="0.14647">
        <ele>617.6</ele>
        <time>2016-07-23T12:03:29Z</time>
      </trkpt>
      <trkpt lat="42.51322" lon="0.14652">
        <ele>618.4</ele>
        <time>2016-07-23T12:03:30Z</time>
      </trkpt>
      <trkpt lat="42.51319" lon="0.14657">
        <ele>619</ele>
        <time>2016-07-23T12:03:31Z</time>
      </trkpt>
      <trkpt lat="42.51317" lon="0.14661">
        <ele>619.6</ele>
        <time>2016-07-23T12:03:32Z</time>
      </trkpt>
      <trkpt lat="42.51315" lon="0.14665">
        <ele>620.3</ele>
        <time>2016-07-23T12:03:33Z</time>
      </trkpt>
      <trkpt lat="42.51313" lon="0.14669">
        <ele>620.9</ele>
        <time>2016-07-23T12:03:34Z</time>
      </trkpt>
      <trkpt lat="42.51311" lon="0.14673">
        <ele>621.5</ele>
        <time>2016-07-23T12:03:35Z</time>
      </trkpt>
      <trkpt lat="42.51309" lon="0.14676">
        <ele>622</ele>
        <time>2016-07-23T12:03:36Z</time>
      </trkpt>
      <trkpt lat="42.51306" lon="0.14679">
        <ele>622.6</ele>
        <time>2016-07-23T12:03:37Z</time>
      </trkpt>
      <trkpt lat="42.51304" lon="0.14682">
        <ele>623.2</ele>
        <time>2016-07-23T12:03:38Z</time>
      </trkpt>
      <trkpt lat="42.51302" lon="0.14685">
        <ele>623.8</ele>
        <time>2016-07-23T12:03:39Z</time>
      </trkpt>
      <trkpt lat="42.51299" lon="0.14688">
        <ele>624.4</ele>
        <time>2016-07-23T12:03:40Z</time>
      </trkpt>
      <trkpt lat="42.51297" lon="0.14692">
        <ele>625.2</ele>
        <time>2016-07-23T12:03:41Z</time>
      </trkpt>
      <trkpt lat="42.51295" lon="0.14696">
        <ele>625.9</ele>
        <time>2016-07-23T12:03:42Z</time>
      </trkpt>
      <trkpt lat="42.51292" lon="0.147">
        <ele>626.8</ele>
        <time>2016-07-23T12:03:43Z</time>
      </trkpt>
      <trkpt lat="42.51288" lon="0.14703">
        <ele>627.6</ele>
        <time>2016-07-23T12:03:44Z</time>
      </trkpt>
      <trkpt lat="42.51285" lon="0.14705">
        <ele>628.2</ele>
        <time>2016-07-23T12:03:45Z</time>
      </trkpt>
      <trkpt lat="42.51281" lon="0.14705">
        <ele>628.7</ele>
        <time>2016-07-23T12:03:47Z</time>
      </trkpt>
      <trkpt lat="42.51279" lon="0.14702">
        <ele>628.4</ele>
        <time>2016-07-23T12:03:49Z</time>
      </trkpt>
      <trkpt lat="42.51276" lon="0.14698">
        <ele>628</ele>
        <time>2016-07-23T12:03:51Z</time>
      </trkpt>
      <trkpt lat="42.51273" lon="0.14692">
        <ele>627.4</ele>
        <time>2016-07-23T12:03:53Z</time>
      </trkpt>
      <trkpt lat="42.51271" lon="0.14688">
        <ele>626.9</ele>
        <time>2016-07-23T12:03:54Z</time>
      </trkpt>
      <trkpt lat="42.51268" lon="0.14684">
        <ele>626.4</ele>
        <time>2016-07-23T12:03:55Z</time>
      </trkpt>
      <trkpt lat="42.51266" lon="0.1468">
        <ele>625.9</ele>
        <time>2016-07-23T12:03:56Z</time>
      </trkpt>
      <trkpt lat="42.51264" lon="0.14676">
        <ele>625.5</ele>
        <time>2016-07-23T12:03:57Z</time>
      </trkpt>
      <trkpt lat="42.51262" lon="0.14673">
        <ele>625.1</ele>
        <time>2016-07-23T12:03:58Z</time>
      </trkpt>
      <trkpt lat="42.51259" lon="0.1467">
        <ele>624.8</ele>
        <time>2016-07-23T12:03:59Z</time>
      </trkpt>
      <trkpt lat="42.51256" lon="0.14667">
        <ele>624.4</ele>
        <time>2016-07-23T12:04:00Z</time>
      </trkpt>
      <trkpt lat="42.51253" lon="0.14664">
        <ele>624.1</ele>
        <time>2016-07-23T12:04:01Z</time>
      </trkpt>
      <trkpt lat="42.51249" lon="0.14661">
        <ele>623.8</ele>
        <time>2016-07-23T12:04:02Z</time>
      </trkpt>
      <trkpt lat="42.51244" lon="0.14658">
        <ele>623.5</ele>
        <time>2016-07-23T12:04:03Z</time>
      </trkpt>
      <trkpt lat="42.5124" lon="0.14655">
        <ele>623.2</ele>
        <time>2016-07-23T12:04:04Z</time>
      </trkpt>
      <trkpt lat="42.51234" lon="0.14653">
        <ele>623</ele>
        <time>2016-07-23T12:04:05Z</time>
      </trkpt>
      <trkpt lat="42.51229" lon="0.1465">
        <ele>622.8</ele>
        <time>2016-07-23T12:04:06Z</time>
      </trkpt>
      <trkpt lat="42.51223" lon="0.14648">
        <ele>622.6</ele>
        <time>2016-07-23T12:04:07Z</time>
      </trkpt>
      <trkpt lat="42.51217" lon="0.14646">
        <ele>622.4</ele>
        <time>2016-07-23T12:04:08Z</time>
      </trkpt>
      <trkpt lat="42.51211" lon="0.14645">
        <ele>622.3</ele>
        <time>2016-07-23T12:04:09Z</time>
      </trkpt>
      <trkpt lat="42.51205" lon="0.14643">
        <ele>621.8</ele>
        <time>2016-07-23T12:04:10Z</time>
      </trkpt>
      <trkpt lat="42.51199" lon="0.14642">
        <ele>621.1</ele>
        <time>2016-07-23T12:04:11Z</time>
      </trkpt>
      <trkpt lat="42.51193" lon="0.14641">
        <ele>620.5</ele>
        <time>2016-07-23T12:04:12Z</time>
      </trkpt>
      <trkpt lat="42.51187" lon="0.1464">
        <ele>619.8</ele>
        <time>2016-07-23T12:04:13Z</time>
      </trkpt>
      <trkpt lat="42.51181" lon="0.14639">
        <ele>619.2</ele>
        <time>2016-07-23T12:04:14Z</time>
      </trkpt>
      <trkpt lat="42.51175" lon="0.14639">
        <ele>618.7</ele>
        <time>2016-07-23T12:04:15Z</time>
      </trkpt>
      <trkpt lat="42.51169" lon="0.14638">
        <ele>618.1</ele>
        <time>2016-07-23T12:04:16Z</time>
      </trkpt>
      <trkpt lat="42.51163" lon="0.14638">
        <ele>617.6</ele>
        <time>2016-07-23T12:04:17Z</time>
      </trkpt>
      <trkpt lat="42.51157" lon="0.14637">
        <ele>617</ele>
        <time>2016-07-23T12:04:18Z</time>
      </trkpt>
      <trkpt lat="42.51151" lon="0.14636">
        <ele>616.4</ele>
        <time>2016-07-23T12:04:19Z</time>
      </trkpt>
      <trkpt lat="42.51144" lon="0.14636">
        <ele>615.8</ele>
        <time>2016-07-23T12:04:20Z</time>
      </trkpt>
      <trkpt lat="42.51138" lon="0.14638">
        <ele>615.6</ele>
        <time>2016-07-23T12:04:21Z</time>
      </trkpt>
      <trkpt lat="42.51131" lon="0.14639">
        <ele>615.3</ele>
        <time>2016-07-23T12:04:22Z</time>
      </trkpt>
      <trkpt lat="42.51124" lon="0.1464">
        <ele>615</ele>
        <time>2016-07-23T12:04:23Z</time>
      </trkpt>
      <trkpt lat="42.51117" lon="0.14641">
        <ele>614.6</ele>
        <time>2016-07-23T12:04:24Z</time>
      </trkpt>
      <trkpt lat="42.51109" lon="0.14641">
        <ele>614.1</ele>
        <time>2016-07-23T12:04:25Z</time>
      </trkpt>
      <trkpt lat="42.51102" lon="0.1464">
        <ele>613.6</ele>
        <time>2016-07-23T12:04:26Z</time>
      </trkpt>
      <trkpt lat="42.51097" lon="0.14637">
        <ele>613</ele>
        <time>2016-07-23T12:04:27Z</time>
      </trkpt>
      <trkpt lat="42.51091" lon="0.14632">
        <ele>612.4</ele>
        <time>2016-07-23T12:04:28Z</time>
      </trkpt>
      <trkpt lat="42.51086" lon="0.14628">
        <ele>611.8</ele>
        <time>2016-07-23T12:04:29Z</time>
      </trkpt>
      <trkpt lat="42.51081" lon="0.14623">
        <ele>611.4</ele>
        <time>2016-07-23T12:04:30Z</time>
      </trkpt>
      <trkpt lat="42.51076" lon="0.1462">
        <ele>611.2</ele>
        <time>2016-07-23T12:04:31Z</time>
      </trkpt>
      <trkpt lat="42.5107" lon="0.14618">
        <ele>611</ele>
        <time>2016-07-23T12:04:32Z</time>
      </trkpt>
      <trkpt lat="42.51064" lon="0.14618">
        <ele>610.8</ele>
        <time>2016-07-23T12:04:33Z</time>
      </trkpt>
      <trkpt lat="42.51057" lon="0.14619">
        <ele>610.6</ele>
        <time>2016-07-23T12:04:34Z</time>
      </trkpt>
      <trkpt lat="42.51051" lon="0.1462">
        <ele>610.4</ele>
        <time>2016-07-23T12:04:35Z</time>
      </trkpt>
      <trkpt lat="42.51045" lon="0.14622">
        <ele>610.2</ele>
        <time>2016-07-23T12:04:36Z</time>
      </trkpt>
      <trkpt lat="42.51039" lon="0.14626">
        <ele>610</ele>
        <time>2016-07-23T12:04:37Z</time>
      </trkpt>
      <trkpt lat="42.51034" lon="0.1463">
        <ele>610</ele>
        <time>2016-07-23T12:04:38Z</time>
      </trkpt>
      <trkpt lat="42.51028" lon="0.14635">
        <ele>610</ele>
        <time>2016-07-23T12:04:39Z</time>
      </trkpt>
      <trkpt lat="42.51023" lon="0.1464">
        <ele>610</ele>
        <time>2016-07-23T12:04:40Z</time>
      </trkpt>
      <trkpt lat="42.51018" lon="0.14644">
        <ele>609.9</ele>
        <time>2016-07-23T12:04:41Z</time>
      </trkpt>
      <trkpt lat="42.51012" lon="0.14648">
        <ele>609.9</ele>
        <time>2016-07-23T12:04:42Z</time>
      </trkpt>
      <trkpt lat="42.51007" lon="0.14654">
        <ele>609.9</ele>
        <time>2016-07-23T12:04:43Z</time>
      </trkpt>
      <trkpt lat="42.51002" lon="0.14659">
        <ele>609.8</ele>
        <time>2016-07-23T12:04:44Z</time>
      </trkpt>
      <trkpt lat="42.50996" lon="0.14663">
        <ele>609.8</ele>
        <time>2016-07-23T12:04:45Z</time>
      </trkpt>
      <trkpt lat="42.50989" lon="0.14667">
        <ele>609.7</ele>
        <time>2016-07-23T12:04:46Z</time>
      </trkpt>
      <trkpt lat="42.50983" lon="0.1467">
        <ele>609.6</ele>
        <time>2016-07-23T12:04:47Z</time>
      </trkpt>
      <trkpt lat="42.50976" lon="0.14675">
        <ele>609.5</ele>
        <time>2016-07-23T12:04:48Z</time>
      </trkpt>
      <trkpt lat="42.5097" lon="0.1468">
        <ele>609.4</ele>
        <time>2016-07-23T12:04:49Z</time>
      </trkpt>
      <trkpt lat="42.50963" lon="0.14685">
        <ele>609.3</ele>
        <time>2016-07-23T12:04:50Z</time>
      </trkpt>
      <trkpt lat="42.50956" lon="0.14689">
        <ele>609.3</ele>
        <time>2016-07-23T12:04:51Z</time>
      </trkpt>
      <trkpt lat="42.5095" lon="0.14694">
        <ele>609.2</ele>
        <time>2016-07-23T12:04:52Z</time>
      </trkpt>
      <trkpt lat="42.50945" lon="0.14699">
        <ele>609.2</ele>
        <time>2016-07-23T12:04:53Z</time>
      </trkpt>
      <trkpt lat="42.50939" lon="0.14703">
        <ele>609.1</ele>
        <time>2016-07-23T12:04:54Z</time>
      </trkpt>
      <trkpt lat="42.50934" lon="0.14707">
        <ele>609</ele>
        <time>2016-07-23T12:04:55Z</time>
      </trkpt>
      <trkpt lat="42.50927" lon="0.14712">
        <ele>609.2</ele>
        <time>2016-07-23T12:04:56Z</time>
      </trkpt>
      <trkpt lat="42.50922" lon="0.14717">
        <ele>609.6</ele>
        <time>2016-07-23T12:04:57Z</time>
      </trkpt>
      <trkpt lat="42.50918" lon="0.14724">
        <ele>610</ele>
        <time>2016-07-23T12:04:58Z</time>
      </trkpt>
      <trkpt lat="42.50912" lon="0.14728">
        <ele>610.3</ele>
        <time>2016-07-23T12:04:59Z</time>
      </trkpt>
      <trkpt lat="42.50907" lon="0.14731">
        <ele>610.4</ele>
        <time>2016-07-23T12:05:00Z</time>
      </trkpt>
      <trkpt lat="42.50901" lon="0.14734">
        <ele>610.5</ele>
        <time>2016-07-23T12:05:01Z</time>
      </trkpt>
      <trkpt lat="42.50896" lon="0.14735">
        <ele>610.5</ele>
        <time>2016-07-23T12:05:02Z</time>
      </trkpt>
      <trkpt lat="42.5089" lon="0.14736">
        <ele>610.5</ele>
        <time>2016-07-23T12:05:03Z</time>
      </trkpt>
      <trkpt lat="42.50884" lon="0.14737">
        <ele>610.5</ele>
        <time>2016-07-23T12:05:04Z</time>
      </trkpt>
      <trkpt lat="42.50879" lon="0.14738">
        <ele>610.4</ele>
        <time>2016-07-23T12:05:05Z</time>
      </trkpt>
      <trkpt lat="42.50874" lon="0.14741">
        <ele>610.6</ele>
        <time>2016-07-23T12:05:06Z</time>
      </trkpt>
      <trkpt lat="42.50869" lon="0.14745">
        <ele>610.7</ele>
        <time>2016-07-23T12:05:07Z</time>
      </trkpt>
      <trkpt lat="42.50863" lon="0.14747">
        <ele>610.8</ele>
        <time>2016-07-23T12:05:08Z</time>
      </trkpt>
      <trkpt lat="42.50858" lon="0.1475">
        <ele>610.9</ele>
        <time>2016-07-23T12:05:09Z</time>
      </trkpt>
      <trkpt lat="42.50853" lon="0.14754">
        <ele>611</ele>
        <time>2016-07-23T12:05:10Z</time>
      </trkpt>
      <trkpt lat="42.50847" lon="0.14758">
        <ele>611</ele>
        <time>2016-07-23T12:05:11Z</time>
      </trkpt>
      <trkpt lat="42.50843" lon="0.14761">
        <ele>611.1</ele>
        <time>2016-07-23T12:05:12Z</time>
      </trkpt>
      <trkpt lat="42.50838" lon="0.14765">
        <ele>611.1</ele>
        <time>2016-07-23T12:05:13Z</time>
      </trkpt>
      <trkpt lat="42.50834" lon="0.14767">
        <ele>611.1</ele>
        <time>2016-07-23T12:05:14Z</time>
      </trkpt>
      <trkpt lat="42.50829" lon="0.1477">
        <ele>611</ele>
        <time>2016-07-23T12:05:15Z</time>
      </trkpt>
      <trkpt lat="42.50826" lon="0.1477">
        <ele>611</ele>
        <time>2016-07-23T12:05:16Z</time>
      </trkpt>
      <trkpt lat="42.50822" lon="0.14771">
        <ele>610.9</ele>
        <time>2016-07-23T12:05:17Z</time>
      </trkpt>
      <trkpt lat="42.50817" lon="0.14771">
        <ele>610.8</ele>
        <time>2016-07-23T12:05:18Z</time>
      </trkpt>
      <trkpt lat="42.50813" lon="0.1477">
        <ele>610.7</ele>
        <time>2016-07-23T12:05:19Z</time>
      </trkpt>
      <trkpt lat="42.50809" lon="0.14773">
        <ele>610.6</ele>
        <time>2016-07-23T12:05:20Z</time>
      </trkpt>
      <trkpt lat="42.50806" lon="0.14775">
        <ele>610.5</ele>
        <time>2016-07-23T12:05:21Z</time>
      </trkpt>
      <trkpt lat="42.50801" lon="0.14777">
        <ele>610.4</ele>
        <time>2016-07-23T12:05:22Z</time>
      </trkpt>
      <trkpt lat="42.50797" lon="0.14779">
        <ele>610.3</ele>
        <time>2016-07-23T12:05:23Z</time>
      </trkpt>
      <trkpt lat="42.50792" lon="0.1478">
        <ele>610.1</ele>
        <time>2016-07-23T12:05:24Z</time>
      </trkpt>
      <trkpt lat="42.50788" lon="0.14781">
        <ele>609.9</ele>
        <time>2016-07-23T12:05:25Z</time>
      </trkpt>
      <trkpt lat="42.50783" lon="0.1478">
        <ele>609.7</ele>
        <time>2016-07-23T12:05:26Z</time>
      </trkpt>
      <trkpt lat="42.5078" lon="0.14781">
        <ele>609.5</ele>
        <time>2016-07-23T12:05:27Z</time>
      </trkpt>
      <trkpt lat="42.50776" lon="0.14781">
        <ele>609.2</ele>
        <time>2016-07-23T12:05:28Z</time>
      </trkpt>
      <trkpt lat="42.50772" lon="0.14781">
        <ele>609</ele>
        <time>2016-07-23T12:05:29Z</time>
      </trkpt>
      <trkpt lat="42.50768" lon="0.14781">
        <ele>608.8</ele>
        <time>2016-07-23T12:05:30Z</time>
      </trkpt>
      <trkpt lat="42.50764" lon="0.14781">
        <ele>608.5</ele>
        <time>2016-07-23T12:05:31Z</time>
      </trkpt>
      <trkpt lat="42.5076" lon="0.14781">
        <ele>608.3</ele>
        <time>2016-07-23T12:05:32Z</time>
      </trkpt>
      <trkpt lat="42.50756" lon="0.14781">
        <ele>608.1</ele>
        <time>2016-07-23T12:05:33Z</time>
      </trkpt>
      <trkpt lat="42.50753" lon="0.14782">
        <ele>607.9</ele>
        <time>2016-07-23T12:05:34Z</time>
      </trkpt>
      <trkpt lat="42.5075" lon="0.14781">
        <ele>607.7</ele>
        <time>2016-07-23T12:05:35Z</time>
      </trkpt>
      <trkpt lat="42.50746" lon="0.14781">
        <ele>607.5</ele>
        <time>2016-07-23T12:05:36Z</time>
      </trkpt>
      <trkpt lat="42.50742" lon="0.14781">
        <ele>607.3</ele>
        <time>2016-07-23T12:05:37Z</time>
      </trkpt>
      <trkpt lat="42.50737" lon="0.14782">
        <ele>607</ele>
        <time>2016-07-23T12:05:38Z</time>
      </trkpt>
      <trkpt lat="42.50732" lon="0.14783">
        <ele>606.7</ele>
        <time>2016-07-23T12:05:39Z</time>
      </trkpt>
      <trkpt lat="42.50727" lon="0.14785">
        <ele>606.4</ele>
        <time>2016-07-23T12:05:40Z</time>
      </trkpt>
      <trkpt lat="42.50723" lon="0.14788">
        <ele>606</ele>
        <time>2016-07-23T12:05:41Z</time>
      </trkpt>
      <trkpt lat="42.50718" lon="0.14791">
        <ele>605.6</ele>
        <time>2016-07-23T12:05:42Z</time>
      </trkpt>
      <trkpt lat="42.50713" lon="0.14793">
        <ele>605.5</ele>
        <time>2016-07-23T12:05:43Z</time>
      </trkpt>
      <trkpt lat="42.50707" lon="0.14796">
        <ele>605.7</ele>
        <time>2016-07-23T12:05:44Z</time>
      </trkpt>
      <trkpt lat="42.50702" lon="0.14797">
        <ele>605.9</ele>
        <time>2016-07-23T12:05:45Z</time>
      </trkpt>
      <trkpt lat="42.50697" lon="0.14798">
        <ele>606.1</ele>
        <time>2016-07-23T12:05:46Z</time>
      </trkpt>
      <trkpt lat="42.50694" lon="0.14799">
        <ele>606.4</ele>
        <time>2016-07-23T12:05:47Z</time>
      </trkpt>
      <trkpt lat="42.50689" lon="0.14801">
        <ele>606.6</ele>
        <time>2016-07-23T12:05:48Z</time>
      </trkpt>
      <trkpt lat="42.50685" lon="0.14805">
        <ele>607.1</ele>
        <time>2016-07-23T12:05:49Z</time>
      </trkpt>
      <trkpt lat="42.50681" lon="0.14808">
        <ele>607.4</ele>
        <time>2016-07-23T12:05:50Z</time>
      </trkpt>
      <trkpt lat="42.50678" lon="0.14811">
        <ele>607.8</ele>
        <time>2016-07-23T12:05:51Z</time>
      </trkpt>
      <trkpt lat="42.50675" lon="0.14815">
        <ele>608.2</ele>
        <time>2016-07-23T12:05:52Z</time>
      </trkpt>
      <trkpt lat="42.50671" lon="0.14819">
        <ele>608.6</ele>
        <time>2016-07-23T12:05:53Z</time>
      </trkpt>
      <trkpt lat="42.50668" lon="0.14823">
        <ele>608.9</ele>
        <time>2016-07-23T12:05:54Z</time>
      </trkpt>
      <trkpt lat="42.50664" lon="0.14826">
        <ele>609</ele>
        <time>2016-07-23T12:05:55Z</time>
      </trkpt>
      <trkpt lat="42.50661" lon="0.1483">
        <ele>609.3</ele>
        <time>2016-07-23T12:05:56Z</time>
      </trkpt>
      <trkpt lat="42.50657" lon="0.14834">
        <ele>609.4</ele>
        <time>2016-07-23T12:05:57Z</time>
      </trkpt>
      <trkpt lat="42.50654" lon="0.14837">
        <ele>609.5</ele>
        <time>2016-07-23T12:05:58Z</time>
      </trkpt>
      <trkpt lat="42.50651" lon="0.14841">
        <ele>609.6</ele>
        <time>2016-07-23T12:05:59Z</time>
      </trkpt>
      <trkpt lat="42.50648" lon="0.14843">
        <ele>609.5</ele>
        <time>2016-07-23T12:06:00Z</time>
      </trkpt>
      <trkpt lat="42.50644" lon="0.14845">
        <ele>609.5</ele>
        <time>2016-07-23T12:06:01Z</time>
      </trkpt>
      <trkpt lat="42.50641" lon="0.14848">
        <ele>609.4</ele>
        <time>2016-07-23T12:06:02Z</time>
      </trkpt>
      <trkpt lat="42.50638" lon="0.1485">
        <ele>609.3</ele>
        <time>2016-07-23T12:06:03Z</time>
      </trkpt>
      <trkpt lat="42.50634" lon="0.14852">
        <ele>609.1</ele>
        <time>2016-07-23T12:06:04Z</time>
      </trkpt>
      <trkpt lat="42.50631" lon="0.14854">
        <ele>608.9</ele>
        <time>2016-07-23T12:06:05Z</time>
      </trkpt>
      <trkpt lat="42.50627" lon="0.14855">
        <ele>608.7</ele>
        <time>2016-07-23T12:06:06Z</time>
      </trkpt>
      <trkpt lat="42.50624" lon="0.14857">
        <ele>608.5</ele>
        <time>2016-07-23T12:06:07Z</time>
      </trkpt>
      <trkpt lat="42.5062" lon="0.14858">
        <ele>608.5</ele>
        <time>2016-07-23T12:06:08Z</time>
      </trkpt>
      <trkpt lat="42.50616" lon="0.14859">
        <ele>608.4</ele>
        <time>2016-07-23T12:06:09Z</time>
      </trkpt>
      <trkpt lat="42.50612" lon="0.1486">
        <ele>608.3</ele>
        <time>2016-07-23T12:06:10Z</time>
      </trkpt>
      <trkpt lat="42.50608" lon="0.14861">
        <ele>608.2</ele>
        <time>2016-07-23T12:06:11Z</time>
      </trkpt>
      <trkpt lat="42.50604" lon="0.14861">
        <ele>608.1</ele>
        <time>2016-07-23T12:06:12Z</time>
      </trkpt>
      <trkpt lat="42.50598" lon="0.14863">
        <ele>608</ele>
        <time>2016-07-23T12:06:13Z</time>
      </trkpt>
      <trkpt lat="42.50595" lon="0.14863">
        <ele>607.9</ele>
        <time>2016-07-23T12:06:14Z</time>
      </trkpt>
      <trkpt lat="42.50591" lon="0.14863">
        <ele>607.8</ele>
        <time>2016-07-23T12:06:15Z</time>
      </trkpt>
      <trkpt lat="42.50587" lon="0.14864">
        <ele>607.7</ele>
        <time>2016-07-23T12:06:17Z</time>
      </trkpt>
      <trkpt lat="42.50584" lon="0.1486">
        <ele>607.6</ele>
        <time>2016-07-23T12:06:19Z</time>
      </trkpt>
      <trkpt lat="42.50582" lon="0.14855">
        <ele>607.6</ele>
        <time>2016-07-23T12:06:20Z</time>
      </trkpt>
      <trkpt lat="42.50582" lon="0.1485">
        <ele>607.6</ele>
        <time>2016-07-23T12:06:21Z</time>
      </trkpt>
      <trkpt lat="42.50582" lon="0.14843">
        <ele>607.7</ele>
        <time>2016-07-23T12:06:22Z</time>
      </trkpt>
      <trkpt lat="42.50583" lon="0.14836">
        <ele>607.7</ele>
        <time>2016-07-23T12:06:23Z</time>
      </trkpt>
      <trkpt lat="42.50583" lon="0.14828">
        <ele>607.8</ele>
        <time>2016-07-23T12:06:24Z</time>
      </trkpt>
      <trkpt lat="42.50584" lon="0.14822">
        <ele>607.8</ele>
        <time>2016-07-23T12:06:25Z</time>
      </trkpt>
      <trkpt lat="42.50585" lon="0.14814">
        <ele>607.9</ele>
        <time>2016-07-23T12:06:26Z</time>
      </trkpt>
      <trkpt lat="42.50586" lon="0.14807">
        <ele>607.9</ele>
        <time>2016-07-23T12:06:27Z</time>
      </trkpt>
      <trkpt lat="42.50587" lon="0.14801">
        <ele>607.9</ele>
        <time>2016-07-23T12:06:28Z</time>
      </trkpt>
      <trkpt lat="42.50588" lon="0.14794">
        <ele>607.9</ele>
        <time>2016-07-23T12:06:29Z</time>
      </trkpt>
      <trkpt lat="42.50589" lon="0.14787">
        <ele>608</ele>
        <time>2016-07-23T12:06:30Z</time>
      </trkpt>
      <trkpt lat="42.5059" lon="0.14782">
        <ele>608.1</ele>
        <time>2016-07-23T12:06:31Z</time>
      </trkpt>
      <trkpt lat="42.50591" lon="0.14775">
        <ele>608.2</ele>
        <time>2016-07-23T12:06:32Z</time>
      </trkpt>
      <trkpt lat="42.50591" lon="0.14768">
        <ele>608.4</ele>
        <time>2016-07-23T12:06:33Z</time>
      </trkpt>
      <trkpt lat="42.50592" lon="0.14761">
        <ele>608.5</ele>
        <time>2016-07-23T12:06:34Z</time>
      </trkpt>
      <trkpt lat="42.50593" lon="0.14756">
        <ele>608.6</ele>
        <time>2016-07-23T12:06:35Z</time>
      </trkpt>
      <trkpt lat="42.50593" lon="0.14749">
        <ele>608.8</ele>
        <time>2016-07-23T12:06:36Z</time>
      </trkpt>
      <trkpt lat="42.50594" lon="0.14742">
        <ele>609</ele>
        <time>2016-07-23T12:06:37Z</time>
      </trkpt>
      <trkpt lat="42.50594" lon="0.14735">
        <ele>609.1</ele>
        <time>2016-07-23T12:06:38Z</time>
      </trkpt>
      <trkpt lat="42.50594" lon="0.14728">
        <ele>609.3</ele>
        <time>2016-07-23T12:06:39Z</time>
      </trkpt>
      <trkpt lat="42.50594" lon="0.14721">
        <ele>609.4</ele>
        <time>2016-07-23T12:06:40Z</time>
      </trkpt>
      <trkpt lat="42.50594" lon="0.14715">
        <ele>609.6</ele>
        <time>2016-07-23T12:06:41Z</time>
      </trkpt>
      <trkpt lat="42.50594" lon="0.14709">
        <ele>609.7</ele>
        <time>2016-07-23T12:06:42Z</time>
      </trkpt>
      <trkpt lat="42.50595" lon="0.14702">
        <ele>609.7</ele>
        <time>2016-07-23T12:06:43Z</time>
      </trkpt>
      <trkpt lat="42.50595" lon="0.14696">
        <ele>609.7</ele>
        <time>2016-07-23T12:06:44Z</time>
      </trkpt>
      <trkpt lat="42.50595" lon="0.14689">
        <ele>609.6</ele>
        <time>2016-07-23T12:06:45Z</time>
      </trkpt>
      <trkpt lat="42.50596" lon="0.14682">
        <ele>609.6</ele>
        <time>2016-07-23T12:06:46Z</time>
      </trkpt>
      <trkpt lat="42.50596" lon="0.14675">
        <ele>609.5</ele>
        <time>2016-07-23T12:06:47Z</time>
      </trkpt>
      <trkpt lat="42.50596" lon="0.14669">
        <ele>609.5</ele>
        <time>2016-07-23T12:06:48Z</time>
      </trkpt>
      <trkpt lat="42.50597" lon="0.14663">
        <ele>609.5</ele>
        <time>2016-07-23T12:06:49Z</time>
      </trkpt>
      <trkpt lat="42.50598" lon="0.14657">
        <ele>609.5</ele>
        <time>2016-07-23T12:06:50Z</time>
      </trkpt>
      <trkpt lat="42.50598" lon="0.14651">
        <ele>609.4</ele>
        <time>2016-07-23T12:06:51Z</time>
      </trkpt>
      <trkpt lat="42.50599" lon="0.14645">
        <ele>609.4</ele>
        <time>2016-07-23T12:06:52Z</time>
      </trkpt>
      <trkpt lat="42.50601" lon="0.1464">
        <ele>609.4</ele>
        <time>2016-07-23T12:06:53Z</time>
      </trkpt>
      <trkpt lat="42.50602" lon="0.14633">
        <ele>609.5</ele>
        <time>2016-07-23T12:06:54Z</time>
      </trkpt>
      <trkpt lat="42.50602" lon="0.14628">
        <ele>609.4</ele>
        <time>2016-07-23T12:06:55Z</time>
      </trkpt>
      <trkpt lat="42.50602" lon="0.14623">
        <ele>609.5</ele>
        <time>2016-07-23T12:06:56Z</time>
      </trkpt>
      <trkpt lat="42.50598" lon="0.1462">
        <ele>609.5</ele>
        <time>2016-07-23T12:06:58Z</time>
      </trkpt>
      <trkpt lat="42.50595" lon="0.1462">
        <ele>609.4</ele>
        <time>2016-07-23T12:06:59Z</time>
      </trkpt>
      <trkpt lat="42.50593" lon="0.14623">
        <ele>609.3</ele>
        <time>2016-07-23T12:07:00Z</time>
      </trkpt>
      <trkpt lat="42.50592" lon="0.1463">
        <ele>609.2</ele>
        <time>2016-07-23T12:07:02Z</time>
      </trkpt>
      <trkpt lat="42.50592" lon="0.14641">
        <ele>609.3</ele>
        <time>2016-07-23T12:07:03Z</time>
      </trkpt>
      <trkpt lat="42.50591" lon="0.14648">
        <ele>609.4</ele>
        <time>2016-07-23T12:07:04Z</time>
      </trkpt>
      <trkpt lat="42.50591" lon="0.14656">
        <ele>609.4</ele>
        <time>2016-07-23T12:07:05Z</time>
      </trkpt>
      <trkpt lat="42.50589" lon="0.14663">
        <ele>609.5</ele>
        <time>2016-07-23T12:07:06Z</time>
      </trkpt>
      <trkpt lat="42.50588" lon="0.14671">
        <ele>609.5</ele>
        <time>2016-07-23T12:07:07Z</time>
      </trkpt>
      <trkpt lat="42.50585" lon="0.14678">
        <ele>609.6</ele>
        <time>2016-07-23T12:07:08Z</time>
      </trkpt>
      <trkpt lat="42.5058" lon="0.14684">
        <ele>609.7</ele>
        <time>2016-07-23T12:07:09Z</time>
      </trkpt>
      <trkpt lat="42.50576" lon="0.14688">
        <ele>609.9</ele>
        <time>2016-07-23T12:07:10Z</time>
      </trkpt>
      <trkpt lat="42.50571" lon="0.14692">
        <ele>610</ele>
        <time>2016-07-23T12:07:11Z</time>
      </trkpt>
      <trkpt lat="42.50566" lon="0.14696">
        <ele>610.1</ele>
        <time>2016-07-23T12:07:12Z</time>
      </trkpt>
      <trkpt lat="42.50561" lon="0.147">
        <ele>610.3</ele>
        <time>2016-07-23T12:07:13Z</time>
      </trkpt>
      <trkpt lat="42.50556" lon="0.14704">
        <ele>610.5</ele>
        <time>2016-07-23T12:07:14Z</time>
      </trkpt>
      <trkpt lat="42.5055" lon="0.14707">
        <ele>610.7</ele>
        <time>2016-07-23T12:07:15Z</time>
      </trkpt>
      <trkpt lat="42.50545" lon="0.1471">
        <ele>610.9</ele>
        <time>2016-07-23T12:07:16Z</time>
      </trkpt>
      <trkpt lat="42.5054" lon="0.14715">
        <ele>610.8</ele>
        <time>2016-07-23T12:07:17Z</time>
      </trkpt>
      <trkpt lat="42.50535" lon="0.14718">
        <ele>610.8</ele>
        <time>2016-07-23T12:07:18Z</time>
      </trkpt>
      <trkpt lat="42.5053" lon="0.14722">
        <ele>610.7</ele>
        <time>2016-07-23T12:07:19Z</time>
      </trkpt>
      <trkpt lat="42.50524" lon="0.14724">
        <ele>610.6</ele>
        <time>2016-07-23T12:07:20Z</time>
      </trkpt>
      <trkpt lat="42.50519" lon="0.14727">
        <ele>610.5</ele>
        <time>2016-07-23T12:07:21Z</time>
      </trkpt>
      <trkpt lat="42.50512" lon="0.1473">
        <ele>610.4</ele>
        <time>2016-07-23T12:07:22Z</time>
      </trkpt>
      <trkpt lat="42.50506" lon="0.14732">
        <ele>610.3</ele>
        <time>2016-07-23T12:07:23Z</time>
      </trkpt>
      <trkpt lat="42.505" lon="0.14734">
        <ele>610.2</ele>
        <time>2016-07-23T12:07:24Z</time>
      </trkpt>
      <trkpt lat="42.50495" lon="0.14737">
        <ele>610.1</ele>
        <time>2016-07-23T12:07:25Z</time>
      </trkpt>
      <trkpt lat="42.50488" lon="0.14737">
        <ele>610.1</ele>
        <time>2016-07-23T12:07:26Z</time>
      </trkpt>
      <trkpt lat="42.50482" lon="0.14737">
        <ele>610.1</ele>
        <time>2016-07-23T12:07:27Z</time>
      </trkpt>
      <trkpt lat="42.50476" lon="0.14737">
        <ele>610</ele>
        <time>2016-07-23T12:07:28Z</time>
      </trkpt>
      <trkpt lat="42.5047" lon="0.14737">
        <ele>610</ele>
        <time>2016-07-23T12:07:29Z</time>
      </trkpt>
      <trkpt lat="42.50463" lon="0.14738">
        <ele>609.9</ele>
        <time>2016-07-23T12:07:30Z</time>
      </trkpt>
      <trkpt lat="42.50455" lon="0.14738">
        <ele>610</ele>
        <time>2016-07-23T12:07:31Z</time>
      </trkpt>
      <trkpt lat="42.50448" lon="0.14739">
        <ele>610</ele>
        <time>2016-07-23T12:07:32Z</time>
      </trkpt>
      <trkpt lat="42.50441" lon="0.1474">
        <ele>610.1</ele>
        <time>2016-07-23T12:07:33Z</time>
      </trkpt>
      <trkpt lat="42.50434" lon="0.14742">
        <ele>610.1</ele>
        <time>2016-07-23T12:07:34Z</time>
      </trkpt>
      <trkpt lat="42.50427" lon="0.14742">
        <ele>610.2</ele>
        <time>2016-07-23T12:07:35Z</time>
      </trkpt>
      <trkpt lat="42.50419" lon="0.14742">
        <ele>610.3</ele>
        <time>2016-07-23T12:07:36Z</time>
      </trkpt>
      <trkpt lat="42.50413" lon="0.14742">
        <ele>610.3</ele>
        <time>2016-07-23T12:07:37Z</time>
      </trkpt>
      <trkpt lat="42.50406" lon="0.14743">
        <ele>610.4</ele>
        <time>2016-07-23T12:07:38Z</time>
      </trkpt>
      <trkpt lat="42.504" lon="0.14744">
        <ele>610.4</ele>
        <time>2016-07-23T12:07:39Z</time>
      </trkpt>
      <trkpt lat="42.50395" lon="0.14744">
        <ele>610.5</ele>
        <time>2016-07-23T12:07:40Z</time>
      </trkpt>
      <trkpt lat="42.5039" lon="0.14744">
        <ele>610.5</ele>
        <time>2016-07-23T12:07:41Z</time>
      </trkpt>
      <trkpt lat="42.50384" lon="0.14746">
        <ele>610.5</ele>
        <time>2016-07-23T12:07:42Z</time>
      </trkpt>
      <trkpt lat="42.50379" lon="0.14746">
        <ele>610.6</ele>
        <time>2016-07-23T12:07:43Z</time>
      </trkpt>
      <trkpt lat="42.50374" lon="0.14747">
        <ele>610.6</ele>
        <time>2016-07-23T12:07:44Z</time>
      </trkpt>
      <trkpt lat="42.50369" lon="0.14747">
        <ele>610.5</ele>
        <time>2016-07-23T12:07:45Z</time>
      </trkpt>
      <trkpt lat="42.50362" lon="0.14744">
        <ele>610.6</ele>
        <time>2016-07-23T12:07:46Z</time>
      </trkpt>
      <trkpt lat="42.50357" lon="0.14745">
        <ele>610.5</ele>
        <time>2016-07-23T12:07:47Z</time>
      </trkpt>
      <trkpt lat="42.50351" lon="0.14745">
        <ele>610.4</ele>
        <time>2016-07-23T12:07:48Z</time>
      </trkpt>
      <trkpt lat="42.50344" lon="0.14746">
        <ele>610.3</ele>
        <time>2016-07-23T12:07:49Z</time>
      </trkpt>
      <trkpt lat="42.50339" lon="0.14747">
        <ele>610.2</ele>
        <time>2016-07-23T12:07:50Z</time>
      </trkpt>
      <trkpt lat="42.50333" lon="0.14748">
        <ele>610.1</ele>
        <time>2016-07-23T12:07:51Z</time>
      </trkpt>
      <trkpt lat="42.50329" lon="0.14749">
        <ele>610</ele>
        <time>2016-07-23T12:07:52Z</time>
      </trkpt>
      <trkpt lat="42.50322" lon="0.1475">
        <ele>609.9</ele>
        <time>2016-07-23T12:07:53Z</time>
      </trkpt>
      <trkpt lat="42.50317" lon="0.1475">
        <ele>609.8</ele>
        <time>2016-07-23T12:07:54Z</time>
      </trkpt>
      <trkpt lat="42.50311" lon="0.1475">
        <ele>609.7</ele>
        <time>2016-07-23T12:07:55Z</time>
      </trkpt>
      <trkpt lat="42.50307" lon="0.14753">
        <ele>609.5</ele>
        <time>2016-07-23T12:07:56Z</time>
      </trkpt>
      <trkpt lat="42.50301" lon="0.14756">
        <ele>609.3</ele>
        <time>2016-07-23T12:07:57Z</time>
      </trkpt>
      <trkpt lat="42.50295" lon="0.14759">
        <ele>609</ele>
        <time>2016-07-23T12:07:58Z</time>
      </trkpt>
      <trkpt lat="42.5029" lon="0.14761">
        <ele>608.7</ele>
        <time>2016-07-23T12:07:59Z</time>
      </trkpt>
      <trkpt lat="42.50284" lon="0.14761">
        <ele>608.4</ele>
        <time>2016-07-23T12:08:00Z</time>
      </trkpt>
      <trkpt lat="42.50278" lon="0.1476">
        <ele>608.2</ele>
        <time>2016-07-23T12:08:01Z</time>
      </trkpt>
      <trkpt lat="42.50272" lon="0.14758">
        <ele>607.9</ele>
        <time>2016-07-23T12:08:02Z</time>
      </trkpt>
      <trkpt lat="42.50266" lon="0.14756">
        <ele>607.6</ele>
        <time>2016-07-23T12:08:03Z</time>
      </trkpt>
      <trkpt lat="42.50261" lon="0.14757">
        <ele>607.3</ele>
        <time>2016-07-23T12:08:04Z</time>
      </trkpt>
      <trkpt lat="42.50255" lon="0.14757">
        <ele>607</ele>
        <time>2016-07-23T12:08:05Z</time>
      </trkpt>
      <trkpt lat="42.50249" lon="0.14758">
        <ele>606.5</ele>
        <time>2016-07-23T12:08:06Z</time>
      </trkpt>
      <trkpt lat="42.50241" lon="0.14759">
        <ele>606.1</ele>
        <time>2016-07-23T12:08:07Z</time>
      </trkpt>
      <trkpt lat="42.50235" lon="0.14759">
        <ele>605.7</ele>
        <time>2016-07-23T12:08:08Z</time>
      </trkpt>
      <trkpt lat="42.50227" lon="0.14759">
        <ele>605.2</ele>
        <time>2016-07-23T12:08:09Z</time>
      </trkpt>
      <trkpt lat="42.5022" lon="0.14757">
        <ele>605</ele>
        <time>2016-07-23T12:08:10Z</time>
      </trkpt>
      <trkpt lat="42.50214" lon="0.14756">
        <ele>604.6</ele>
        <time>2016-07-23T12:08:11Z</time>
      </trkpt>
      <trkpt lat="42.50208" lon="0.14754">
        <ele>604.4</ele>
        <time>2016-07-23T12:08:12Z</time>
      </trkpt>
      <trkpt lat="42.50202" lon="0.14752">
        <ele>604.3</ele>
        <time>2016-07-23T12:08:13Z</time>
      </trkpt>
      <trkpt lat="42.50197" lon="0.14751">
        <ele>604.2</ele>
        <time>2016-07-23T12:08:14Z</time>
      </trkpt>
      <trkpt lat="42.5019" lon="0.14748">
        <ele>604.1</ele>
        <time>2016-07-23T12:08:15Z</time>
      </trkpt>
      <trkpt lat="42.50185" lon="0.14745">
        <ele>604.1</ele>
        <time>2016-07-23T12:08:16Z</time>
      </trkpt>
      <trkpt lat="42.50178" lon="0.14742">
        <ele>604</ele>
        <time>2016-07-23T12:08:17Z</time>
      </trkpt>
      <trkpt lat="42.50172" lon="0.1474">
        <ele>603.9</ele>
        <time>2016-07-23T12:08:18Z</time>
      </trkpt>
      <trkpt lat="42.50165" lon="0.14737">
        <ele>603.8</ele>
        <time>2016-07-23T12:08:19Z</time>
      </trkpt>
      <trkpt lat="42.5016" lon="0.14734">
        <ele>603.7</ele>
        <time>2016-07-23T12:08:20Z</time>
      </trkpt>
      <trkpt lat="42.50154" lon="0.14733">
        <ele>603.5</ele>
        <time>2016-07-23T12:08:21Z</time>
      </trkpt>
      <trkpt lat="42.50148" lon="0.14731">
        <ele>603.4</ele>
        <time>2016-07-23T12:08:22Z</time>
      </trkpt>
      <trkpt lat="42.50141" lon="0.14728">
        <ele>603.2</ele>
        <time>2016-07-23T12:08:23Z</time>
      </trkpt>
      <trkpt lat="42.50135" lon="0.14726">
        <ele>603.1</ele>
        <time>2016-07-23T12:08:24Z</time>
      </trkpt>
      <trkpt lat="42.50129" lon="0.14722">
        <ele>603</ele>
        <time>2016-07-23T12:08:25Z</time>
      </trkpt>
      <trkpt lat="42.50122" lon="0.1472">
        <ele>602.8</ele>
        <time>2016-07-23T12:08:26Z</time>
      </trkpt>
      <trkpt lat="42.50116" lon="0.1472">
        <ele>602.6</ele>
        <time>2016-07-23T12:08:27Z</time>
      </trkpt>
      <trkpt lat="42.50109" lon="0.14717">
        <ele>602.5</ele>
        <time>2016-07-23T12:08:28Z</time>
      </trkpt>
      <trkpt lat="42.50103" lon="0.14715">
        <ele>602.4</ele>
        <time>2016-07-23T12:08:29Z</time>
      </trkpt>
      <trkpt lat="42.50096" lon="0.14712">
        <ele>602.2</ele>
        <time>2016-07-23T12:08:30Z</time>
      </trkpt>
      <trkpt lat="42.50089" lon="0.1471">
        <ele>602.1</ele>
        <time>2016-07-23T12:08:31Z</time>
      </trkpt>
      <trkpt lat="42.50082" lon="0.14707">
        <ele>602</ele>
        <time>2016-07-23T12:08:32Z</time>
      </trkpt>
      <trkpt lat="42.50075" lon="0.14705">
        <ele>601.8</ele>
        <time>2016-07-23T12:08:33Z</time>
      </trkpt>
      <trkpt lat="42.50067" lon="0.14702">
        <ele>601.7</ele>
        <time>2016-07-23T12:08:34Z</time>
      </trkpt>
      <trkpt lat="42.5006" lon="0.14699">
        <ele>601.5</ele>
        <time>2016-07-23T12:08:35Z</time>
      </trkpt>
      <trkpt lat="42.50054" lon="0.14696">
        <ele>601.4</ele>
        <time>2016-07-23T12:08:36Z</time>
      </trkpt>
      <trkpt lat="42.50047" lon="0.14691">
        <ele>601.2</ele>
        <time>2016-07-23T12:08:37Z</time>
      </trkpt>
      <trkpt lat="42.50041" lon="0.14688">
        <ele>601</ele>
        <time>2016-07-23T12:08:38Z</time>
      </trkpt>
      <trkpt lat="42.50034" lon="0.14685">
        <ele>601</ele>
        <time>2016-07-23T12:08:39Z</time>
      </trkpt>
      <trkpt lat="42.50028" lon="0.14682">
        <ele>600.9</ele>
        <time>2016-07-23T12:08:40Z</time>
      </trkpt>
      <trkpt lat="42.50021" lon="0.14679">
        <ele>600.9</ele>
        <time>2016-07-23T12:08:41Z</time>
      </trkpt>
      <trkpt lat="42.50015" lon="0.14676">
        <ele>600.9</ele>
        <time>2016-07-23T12:08:42Z</time>
      </trkpt>
      <trkpt lat="42.50009" lon="0.14673">
        <ele>600.8</ele>
        <time>2016-07-23T12:08:43Z</time>
      </trkpt>
      <trkpt lat="42.50002" lon="0.14669">
        <ele>600.8</ele>
        <time>2016-07-23T12:08:44Z</time>
      </trkpt>
      <trkpt lat="42.49996" lon="0.14666">
        <ele>600.7</ele>
        <time>2016-07-23T12:08:45Z</time>
      </trkpt>
      <trkpt lat="42.49989" lon="0.14662">
        <ele>600.7</ele>
        <time>2016-07-23T12:08:46Z</time>
      </trkpt>
      <trkpt lat="42.49983" lon="0.14659">
        <ele>600.6</ele>
        <time>2016-07-23T12:08:47Z</time>
      </trkpt>
      <trkpt lat="42.49978" lon="0.14657">
        <ele>600.5</ele>
        <time>2016-07-23T12:08:48Z</time>
      </trkpt>
      <trkpt lat="42.49971" lon="0.14655">
        <ele>600.5</ele>
        <time>2016-07-23T12:08:49Z</time>
      </trkpt>
      <trkpt lat="42.49964" lon="0.14652">
        <ele>600.4</ele>
        <time>2016-07-23T12:08:50Z</time>
      </trkpt>
      <trkpt lat="42.49958" lon="0.14649">
        <ele>600.3</ele>
        <time>2016-07-23T12:08:51Z</time>
      </trkpt>
      <trkpt lat="42.49951" lon="0.14646">
        <ele>600.2</ele>
        <time>2016-07-23T12:08:52Z</time>
      </trkpt>
      <trkpt lat="42.49946" lon="0.14644">
        <ele>600.1</ele>
        <time>2016-07-23T12:08:53Z</time>
      </trkpt>
      <trkpt lat="42.49939" lon="0.1464">
        <ele>600.1</ele>
        <time>2016-07-23T12:08:54Z</time>
      </trkpt>
      <trkpt lat="42.49932" lon="0.14638">
        <ele>600</ele>
        <time>2016-07-23T12:08:55Z</time>
      </trkpt>
      <trkpt lat="42.49926" lon="0.14634">
        <ele>600</ele>
        <time>2016-07-23T12:08:56Z</time>
      </trkpt>
      <trkpt lat="42.49919" lon="0.1463">
        <ele>600</ele>
        <time>2016-07-23T12:08:57Z</time>
      </trkpt>
      <trkpt lat="42.49912" lon="0.14627">
        <ele>600</ele>
        <time>2016-07-23T12:08:58Z</time>
      </trkpt>
      <trkpt lat="42.49907" lon="0.14625">
        <ele>600</ele>
        <time>2016-07-23T12:08:59Z</time>
      </trkpt>
      <trkpt lat="42.499" lon="0.14622">
        <ele>600.1</ele>
        <time>2016-07-23T12:09:00Z</time>
      </trkpt>
      <trkpt lat="42.49893" lon="0.14619">
        <ele>600.1</ele>
        <time>2016-07-23T12:09:01Z</time>
      </trkpt>
      <trkpt lat="42.49887" lon="0.14617">
        <ele>600.2</ele>
        <time>2016-07-23T12:09:02Z</time>
      </trkpt>
      <trkpt lat="42.4988" lon="0.14614">
        <ele>600.3</ele>
        <time>2016-07-23T12:09:03Z</time>
      </trkpt>
      <trkpt lat="42.49874" lon="0.14612">
        <ele>600.3</ele>
        <time>2016-07-23T12:09:04Z</time>
      </trkpt>
      <trkpt lat="42.49868" lon="0.14609">
        <ele>600.5</ele>
        <time>2016-07-23T12:09:05Z</time>
      </trkpt>
      <trkpt lat="42.49861" lon="0.14609">
        <ele>600.6</ele>
        <time>2016-07-23T12:09:06Z</time>
      </trkpt>
      <trkpt lat="42.49854" lon="0.14605">
        <ele>600.8</ele>
        <time>2016-07-23T12:09:07Z</time>
      </trkpt>
      <trkpt lat="42.49847" lon="0.14602">
        <ele>601</ele>
        <time>2016-07-23T12:09:08Z</time>
      </trkpt>
      <trkpt lat="42.4984" lon="0.14599">
        <ele>601.1</ele>
        <time>2016-07-23T12:09:09Z</time>
      </trkpt>
      <trkpt lat="42.49834" lon="0.14596">
        <ele>601.2</ele>
        <time>2016-07-23T12:09:10Z</time>
      </trkpt>
      <trkpt lat="42.49827" lon="0.14593">
        <ele>601.3</ele>
        <time>2016-07-23T12:09:11Z</time>
      </trkpt>
      <trkpt lat="42.49821" lon="0.14591">
        <ele>601.3</ele>
        <time>2016-07-23T12:09:12Z</time>
      </trkpt>
      <trkpt lat="42.49815" lon="0.14589">
        <ele>601.4</ele>
        <time>2016-07-23T12:09:13Z</time>
      </trkpt>
      <trkpt lat="42.49809" lon="0.14585">
        <ele>601.4</ele>
        <time>2016-07-23T12:09:14Z</time>
      </trkpt>
      <trkpt lat="42.49804" lon="0.14583">
        <ele>601.4</ele>
        <time>2016-07-23T12:09:15Z</time>
      </trkpt>
      <trkpt lat="42.49798" lon="0.14579">
        <ele>601.4</ele>
        <time>2016-07-23T12:09:16Z</time>
      </trkpt>
      <trkpt lat="42.49793" lon="0.14576">
        <ele>601.4</ele>
        <time>2016-07-23T12:09:17Z</time>
      </trkpt>
      <trkpt lat="42.49787" lon="0.14573">
        <ele>601.3</ele>
        <time>2016-07-23T12:09:18Z</time>
      </trkpt>
      <trkpt lat="42.49781" lon="0.14571">
        <ele>601.2</ele>
        <time>2016-07-23T12:09:19Z</time>
      </trkpt>
      <trkpt lat="42.49775" lon="0.14568">
        <ele>601.1</ele>
        <time>2016-07-23T12:09:20Z</time>
      </trkpt>
      <trkpt lat="42.4977" lon="0.14566">
        <ele>601.1</ele>
        <time>2016-07-23T12:09:21Z</time>
      </trkpt>
      <trkpt lat="42.49765" lon="0.14562">
        <ele>601</ele>
        <time>2016-07-23T12:09:22Z</time>
      </trkpt>
      <trkpt lat="42.49759" lon="0.14558">
        <ele>601</ele>
        <time>2016-07-23T12:09:23Z</time>
      </trkpt>
      <trkpt lat="42.49753" lon="0.14554">
        <ele>600.9</ele>
        <time>2016-07-23T12:09:24Z</time>
      </trkpt>
      <trkpt lat="42.49748" lon="0.1455">
        <ele>600.9</ele>
        <time>2016-07-23T12:09:25Z</time>
      </trkpt>
      <trkpt lat="42.49743" lon="0.14546">
        <ele>601</ele>
        <time>2016-07-23T12:09:26Z</time>
      </trkpt>
      <trkpt lat="42.49738" lon="0.14542">
        <ele>601</ele>
        <time>2016-07-23T12:09:27Z</time>
      </trkpt>
      <trkpt lat="42.49733" lon="0.14537">
        <ele>601.1</ele>
        <time>2016-07-23T12:09:28Z</time>
      </trkpt>
      <trkpt lat="42.49728" lon="0.14531">
        <ele>601.3</ele>
        <time>2016-07-23T12:09:29Z</time>
      </trkpt>
      <trkpt lat="42.49723" lon="0.14524">
        <ele>601.6</ele>
        <time>2016-07-23T12:09:30Z</time>
      </trkpt>
      <trkpt lat="42.49719" lon="0.14517">
        <ele>601.8</ele>
        <time>2016-07-23T12:09:31Z</time>
      </trkpt>
      <trkpt lat="42.49716" lon="0.14511">
        <ele>602.1</ele>
        <time>2016-07-23T12:09:32Z</time>
      </trkpt>
      <trkpt lat="42.49713" lon="0.14501">
        <ele>602.4</ele>
        <time>2016-07-23T12:09:33Z</time>
      </trkpt>
      <trkpt lat="42.4971" lon="0.14493">
        <ele>602.7</ele>
        <time>2016-07-23T12:09:34Z</time>
      </trkpt>
      <trkpt lat="42.49711" lon="0.14485">
        <ele>603</ele>
        <time>2016-07-23T12:09:35Z</time>
      </trkpt>
      <trkpt lat="42.4971" lon="0.14478">
        <ele>603.3</ele>
        <time>2016-07-23T12:09:36Z</time>
      </trkpt>
      <trkpt lat="42.4971" lon="0.1447">
        <ele>603.6</ele>
        <time>2016-07-23T12:09:37Z</time>
      </trkpt>
      <trkpt lat="42.49708" lon="0.14463">
        <ele>603.8</ele>
        <time>2016-07-23T12:09:38Z</time>
      </trkpt>
      <trkpt lat="42.49707" lon="0.14454">
        <ele>604.7</ele>
        <time>2016-07-23T12:09:39Z</time>
      </trkpt>
      <trkpt lat="42.49706" lon="0.14446">
        <ele>605.7</ele>
        <time>2016-07-23T12:09:40Z</time>
      </trkpt>
      <trkpt lat="42.49705" lon="0.14438">
        <ele>606.7</ele>
        <time>2016-07-23T12:09:41Z</time>
      </trkpt>
      <trkpt lat="42.49708" lon="0.14431">
        <ele>606.2</ele>
        <time>2016-07-23T12:09:42Z</time>
      </trkpt>
      <trkpt lat="42.4971" lon="0.14424">
        <ele>606.4</ele>
        <time>2016-07-23T12:09:43Z</time>
      </trkpt>
      <trkpt lat="42.49714" lon="0.14418">
        <ele>606.6</ele>
        <time>2016-07-23T12:09:44Z</time>
      </trkpt>
      <trkpt lat="42.49718" lon="0.14416">
        <ele>606.5</ele>
        <time>2016-07-23T12:09:45Z</time>
      </trkpt>
      <trkpt lat="42.49722" lon="0.14414">
        <ele>606.4</ele>
        <time>2016-07-23T12:09:46Z</time>
      </trkpt>
      <trkpt lat="42.49727" lon="0.14414">
        <ele>606.1</ele>
        <time>2016-07-23T12:09:47Z</time>
      </trkpt>
      <trkpt lat="42.49733" lon="0.14413">
        <ele>605.9</ele>
        <time>2016-07-23T12:09:48Z</time>
      </trkpt>
      <trkpt lat="42.49737" lon="0.14415">
        <ele>605.6</ele>
        <time>2016-07-23T12:09:49Z</time>
      </trkpt>
      <trkpt lat="42.49743" lon="0.14415">
        <ele>605.2</ele>
        <time>2016-07-23T12:09:51Z</time>
      </trkpt>
      <trkpt lat="42.49748" lon="0.14415">
        <ele>604.9</ele>
        <time>2016-07-23T12:09:53Z</time>
      </trkpt>
      <trkpt lat="42.49753" lon="0.14414">
        <ele>604.7</ele>
        <time>2016-07-23T12:09:55Z</time>
      </trkpt>
      <trkpt lat="42.49758" lon="0.14418">
        <ele>604.3</ele>
        <time>2016-07-23T12:09:57Z</time>
      </trkpt>
      <trkpt lat="42.49762" lon="0.1442">
        <ele>604</ele>
        <time>2016-07-23T12:09:58Z</time>
      </trkpt>
      <trkpt lat="42.49767" lon="0.14419">
        <ele>603.8</ele>
        <time>2016-07-23T12:09:59Z</time>
      </trkpt>
      <trkpt lat="42.49771" lon="0.14419">
        <ele>603.5</ele>
        <time>2016-07-23T12:10:00Z</time>
      </trkpt>
      <trkpt lat="42.49776" lon="0.1442">
        <ele>603.3</ele>
        <time>2016-07-23T12:10:01Z</time>
      </trkpt>
      <trkpt lat="42.49781" lon="0.1442">
        <ele>603</ele>
        <time>2016-07-23T12:10:02Z</time>
      </trkpt>
      <trkpt lat="42.49785" lon="0.14419">
        <ele>602.8</ele>
        <time>2016-07-23T12:10:03Z</time>
      </trkpt>
      <trkpt lat="42.49789" lon="0.14419">
        <ele>602.6</ele>
        <time>2016-07-23T12:10:04Z</time>
      </trkpt>
      <trkpt lat="42.49795" lon="0.14418">
        <ele>602.6</ele>
        <time>2016-07-23T12:10:05Z</time>
      </trkpt>
      <trkpt lat="42.49799" lon="0.14417">
        <ele>602.7</ele>
        <time>2016-07-23T12:10:06Z</time>
      </trkpt>
      <trkpt lat="42.49805" lon="0.14418">
        <ele>602.8</ele>
        <time>2016-07-23T12:10:07Z</time>
      </trkpt>
      <trkpt lat="42.49809" lon="0.14416">
        <ele>602.9</ele>
        <time>2016-07-23T12:10:08Z</time>
      </trkpt>
      <trkpt lat="42.49813" lon="0.14415">
        <ele>603</ele>
        <time>2016-07-23T12:10:09Z</time>
      </trkpt>
      <trkpt lat="42.49817" lon="0.14414">
        <ele>603.1</ele>
        <time>2016-07-23T12:10:10Z</time>
      </trkpt>
      <trkpt lat="42.49822" lon="0.14414">
        <ele>603.3</ele>
        <time>2016-07-23T12:10:11Z</time>
      </trkpt>
      <trkpt lat="42.49825" lon="0.14413">
        <ele>603.4</ele>
        <time>2016-07-23T12:10:12Z</time>
      </trkpt>
      <trkpt lat="42.4983" lon="0.14413">
        <ele>603.5</ele>
        <time>2016-07-23T12:10:13Z</time>
      </trkpt>
      <trkpt lat="42.49834" lon="0.14411">
        <ele>603.6</ele>
        <time>2016-07-23T12:10:14Z</time>
      </trkpt>
      <trkpt lat="42.49839" lon="0.1441">
        <ele>603.7</ele>
        <time>2016-07-23T12:10:15Z</time>
      </trkpt>
      <trkpt lat="42.49843" lon="0.1441">
        <ele>603.8</ele>
        <time>2016-07-23T12:10:16Z</time>
      </trkpt>
      <trkpt lat="42.49848" lon="0.14408">
        <ele>603.9</ele>
        <time>2016-07-23T12:10:17Z</time>
      </trkpt>
      <trkpt lat="42.49852" lon="0.14408">
        <ele>604</ele>
        <time>2016-07-23T12:10:18Z</time>
      </trkpt>
      <trkpt lat="42.49856" lon="0.14408">
        <ele>604.1</ele>
        <time>2016-07-23T12:10:19Z</time>
      </trkpt>
      <trkpt lat="42.4986" lon="0.14407">
        <ele>604.2</ele>
        <time>2016-07-23T12:10:20Z</time>
      </trkpt>
      <trkpt lat="42.49864" lon="0.14407">
        <ele>604.4</ele>
        <time>2016-07-23T12:10:21Z</time>
      </trkpt>
      <trkpt lat="42.49867" lon="0.14407">
        <ele>604.4</ele>
        <time>2016-07-23T12:10:22Z</time>
      </trkpt>
      <trkpt lat="42.4987" lon="0.14407">
        <ele>604.5</ele>
        <time>2016-07-23T12:10:23Z</time>
      </trkpt>
      <trkpt lat="42.49874" lon="0.14407">
        <ele>604.6</ele>
        <time>2016-07-23T12:10:24Z</time>
      </trkpt>
      <trkpt lat="42.49877" lon="0.14406">
        <ele>604.7</ele>
        <time>2016-07-23T12:10:25Z</time>
      </trkpt>
      <trkpt lat="42.4988" lon="0.14406">
        <ele>604.9</ele>
        <time>2016-07-23T12:10:26Z</time>
      </trkpt>
      <trkpt lat="42.49884" lon="0.14406">
        <ele>605.1</ele>
        <time>2016-07-23T12:10:27Z</time>
      </trkpt>
      <trkpt lat="42.49888" lon="0.14405">
        <ele>605.3</ele>
        <time>2016-07-23T12:10:28Z</time>
      </trkpt>
      <trkpt lat="42.49892" lon="0.14405">
        <ele>605.6</ele>
        <time>2016-07-23T12:10:29Z</time>
      </trkpt>
      <trkpt lat="42.49896" lon="0.14404">
        <ele>605.8</ele>
        <time>2016-07-23T12:10:30Z</time>
      </trkpt>
      <trkpt lat="42.499" lon="0.14404">
        <ele>606</ele>
        <time>2016-07-23T12:10:31Z</time>
      </trkpt>
      <trkpt lat="42.49903" lon="0.14404">
        <ele>606.2</ele>
        <time>2016-07-23T12:10:32Z</time>
      </trkpt>
      <trkpt lat="42.49907" lon="0.14405">
        <ele>606.4</ele>
        <time>2016-07-23T12:10:33Z</time>
      </trkpt>
      <trkpt lat="42.49911" lon="0.14404">
        <ele>606.6</ele>
        <time>2016-07-23T12:10:34Z</time>
      </trkpt>
      <trkpt lat="42.49915" lon="0.14404">
        <ele>606.9</ele>
        <time>2016-07-23T12:10:35Z</time>
      </trkpt>
      <trkpt lat="42.49919" lon="0.14404">
        <ele>607.1</ele>
        <time>2016-07-23T12:10:36Z</time>
      </trkpt>
      <trkpt lat="42.49922" lon="0.14404">
        <ele>607.3</ele>
        <time>2016-07-23T12:10:37Z</time>
      </trkpt>
      <trkpt lat="42.49926" lon="0.14404">
        <ele>607.5</ele>
        <time>2016-07-23T12:10:38Z</time>
      </trkpt>
      <trkpt lat="42.49929" lon="0.14404">
        <ele>607.7</ele>
        <time>2016-07-23T12:10:39Z</time>
      </trkpt>
      <trkpt lat="42.49933" lon="0.14404">
        <ele>607.8</ele>
        <time>2016-07-23T12:10:40Z</time>
      </trkpt>
      <trkpt lat="42.49935" lon="0.14404">
        <ele>608</ele>
        <time>2016-07-23T12:10:41Z</time>
      </trkpt>
      <trkpt lat="42.4994" lon="0.14404">
        <ele>608.2</ele>
        <time>2016-07-23T12:10:43Z</time>
      </trkpt>
      <trkpt lat="42.49943" lon="0.14403">
        <ele>608.5</ele>
        <time>2016-07-23T12:10:45Z</time>
      </trkpt>
      <trkpt lat="42.49945" lon="0.144">
        <ele>608.8</ele>
        <time>2016-07-23T12:10:47Z</time>
      </trkpt>
      <trkpt lat="42.49945" lon="0.14394">
        <ele>609.1</ele>
        <time>2016-07-23T12:10:49Z</time>
      </trkpt>
      <trkpt lat="42.49946" lon="0.14389">
        <ele>609.4</ele>
        <time>2016-07-23T12:10:51Z</time>
      </trkpt>
      <trkpt lat="42.49947" lon="0.14384">
        <ele>609.7</ele>
        <time>2016-07-23T12:10:53Z</time>
      </trkpt>
      <trkpt lat="42.49948" lon="0.14379">
        <ele>610.1</ele>
        <time>2016-07-23T12:10:55Z</time>
      </trkpt>
      <trkpt lat="42.4995" lon="0.14374">
        <ele>610.4</ele>
        <time>2016-07-23T12:10:57Z</time>
      </trkpt>
      <trkpt lat="42.49954" lon="0.14372">
        <ele>610.6</ele>
        <time>2016-07-23T12:10:59Z</time>
      </trkpt>
      <trkpt lat="42.49958" lon="0.14371">
        <ele>610.9</ele>
        <time>2016-07-23T12:11:01Z</time>
      </trkpt>
      <trkpt lat="42.49961" lon="0.14372">
        <ele>611.1</ele>
        <time>2016-07-23T12:11:03Z</time>
      </trkpt>
      <trkpt lat="42.49958" lon="0.1437">
        <ele>610.9</ele>
        <time>2016-07-23T12:11:23Z</time>
      </trkpt>
      <trkpt lat="42.49956" lon="0.14373">
        <ele>610.8</ele>
        <time>2016-07-23T12:11:37Z</time>
      </trkpt>
    </trkseg>
  </trk>
  <trk>
    <name><![CDATA[Aínsa 9]]></name>
    <extensions>
      <line xmlns="http://www.topografix.com/GPX/gpx_style/0/2">
        <color>0000FF</color>
        <width>4</width>
      </line>
    </extensions>
    <trkseg>
      <trkpt lat="42.4147" lon="0.14404">
        <ele>527.3</ele>
        <time>2016-07-24T07:33:55Z</time>
      </trkpt>
      <trkpt lat="42.41463" lon="0.14404">
        <ele>527.3</ele>
        <time>2016-07-24T07:33:59Z</time>
      </trkpt>
      <trkpt lat="42.41473" lon="0.14407">
        <ele>527.3</ele>
        <time>2016-07-24T07:34:03Z</time>
      </trkpt>
      <trkpt lat="42.41473" lon="0.14403">
        <ele>527.2</ele>
        <time>2016-07-24T07:35:17Z</time>
      </trkpt>
      <trkpt lat="42.4147" lon="0.144">
        <ele>527.2</ele>
        <time>2016-07-24T07:35:21Z</time>
      </trkpt>
      <trkpt lat="42.41472" lon="0.14403">
        <ele>527.2</ele>
        <time>2016-07-24T07:35:55Z</time>
      </trkpt>
      <trkpt lat="42.41474" lon="0.14407">
        <ele>527.3</ele>
        <time>2016-07-24T07:35:58Z</time>
      </trkpt>
      <trkpt lat="42.41473" lon="0.14397">
        <ele>527.1</ele>
        <time>2016-07-24T07:39:10Z</time>
      </trkpt>
      <trkpt lat="42.41476" lon="0.14397">
        <ele>527.1</ele>
        <time>2016-07-24T07:39:14Z</time>
      </trkpt>
      <trkpt lat="42.41481" lon="0.14404">
        <ele>527.2</ele>
        <time>2016-07-24T07:40:01Z</time>
      </trkpt>
      <trkpt lat="42.41483" lon="0.14407">
        <ele>527.3</ele>
        <time>2016-07-24T07:40:03Z</time>
      </trkpt>
      <trkpt lat="42.41485" lon="0.14412">
        <ele>527.4</ele>
        <time>2016-07-24T07:40:05Z</time>
      </trkpt>
      <trkpt lat="42.41487" lon="0.14419">
        <ele>527.6</ele>
        <time>2016-07-24T07:40:07Z</time>
      </trkpt>
      <trkpt lat="42.41489" lon="0.14426">
        <ele>527.8</ele>
        <time>2016-07-24T07:40:09Z</time>
      </trkpt>
      <trkpt lat="42.4149" lon="0.14429">
        <ele>527.9</ele>
        <time>2016-07-24T07:40:10Z</time>
      </trkpt>
      <trkpt lat="42.41491" lon="0.14433">
        <ele>528</ele>
        <time>2016-07-24T07:40:11Z</time>
      </trkpt>
      <trkpt lat="42.41492" lon="0.14436">
        <ele>528.1</ele>
        <time>2016-07-24T07:40:12Z</time>
      </trkpt>
      <trkpt lat="42.41494" lon="0.14439">
        <ele>528.2</ele>
        <time>2016-07-24T07:40:13Z</time>
      </trkpt>
      <trkpt lat="42.41496" lon="0.14442">
        <ele>528.3</ele>
        <time>2016-07-24T07:40:14Z</time>
      </trkpt>
      <trkpt lat="42.41499" lon="0.14444">
        <ele>528.5</ele>
        <time>2016-07-24T07:40:15Z</time>
      </trkpt>
      <trkpt lat="42.41502" lon="0.14447">
        <ele>528.6</ele>
        <time>2016-07-24T07:40:16Z</time>
      </trkpt>
      <trkpt lat="42.41505" lon="0.14448">
        <ele>528.7</ele>
        <time>2016-07-24T07:40:17Z</time>
      </trkpt>
      <trkpt lat="42.41509" lon="0.1445">
        <ele>528.8</ele>
        <time>2016-07-24T07:40:18Z</time>
      </trkpt>
      <trkpt lat="42.41512" lon="0.14451">
        <ele>528.9</ele>
        <time>2016-07-24T07:40:19Z</time>
      </trkpt>
      <trkpt lat="42.41515" lon="0.14451">
        <ele>529</ele>
        <time>2016-07-24T07:40:20Z</time>
      </trkpt>
      <trkpt lat="42.41519" lon="0.14452">
        <ele>529.1</ele>
        <time>2016-07-24T07:40:21Z</time>
      </trkpt>
      <trkpt lat="42.41522" lon="0.14452">
        <ele>529.2</ele>
        <time>2016-07-24T07:40:22Z</time>
      </trkpt>
      <trkpt lat="42.41525" lon="0.14452">
        <ele>529.3</ele>
        <time>2016-07-24T07:40:23Z</time>
      </trkpt>
      <trkpt lat="42.41529" lon="0.14451">
        <ele>529.3</ele>
        <time>2016-07-24T07:40:24Z</time>
      </trkpt>
      <trkpt lat="42.41532" lon="0.14448">
        <ele>529.2</ele>
        <time>2016-07-24T07:40:25Z</time>
      </trkpt>
      <trkpt lat="42.41534" lon="0.14443">
        <ele>529</ele>
        <time>2016-07-24T07:40:26Z</time>
      </trkpt>
      <trkpt lat="42.41535" lon="0.14436">
        <ele>528.6</ele>
        <time>2016-07-24T07:40:27Z</time>
      </trkpt>
      <trkpt lat="42.41534" lon="0.1443">
        <ele>528.2</ele>
        <time>2016-07-24T07:40:28Z</time>
      </trkpt>
      <trkpt lat="42.41532" lon="0.14424">
        <ele>527.9</ele>
        <time>2016-07-24T07:40:29Z</time>
      </trkpt>
      <trkpt lat="42.41529" lon="0.14418">
        <ele>527.6</ele>
        <time>2016-07-24T07:40:30Z</time>
      </trkpt>
      <trkpt lat="42.41526" lon="0.14412">
        <ele>527.3</ele>
        <time>2016-07-24T07:40:31Z</time>
      </trkpt>
      <trkpt lat="42.41524" lon="0.14407">
        <ele>527</ele>
        <time>2016-07-24T07:40:32Z</time>
      </trkpt>
      <trkpt lat="42.41523" lon="0.14401">
        <ele>526.7</ele>
        <time>2016-07-24T07:40:33Z</time>
      </trkpt>
      <trkpt lat="42.41521" lon="0.14395">
        <ele>526.4</ele>
        <time>2016-07-24T07:40:34Z</time>
      </trkpt>
      <trkpt lat="42.4152" lon="0.14389">
        <ele>526.2</ele>
        <time>2016-07-24T07:40:35Z</time>
      </trkpt>
      <trkpt lat="42.41519" lon="0.14383">
        <ele>525.9</ele>
        <time>2016-07-24T07:40:36Z</time>
      </trkpt>
      <trkpt lat="42.41518" lon="0.14377">
        <ele>525.6</ele>
        <time>2016-07-24T07:40:37Z</time>
      </trkpt>
      <trkpt lat="42.41517" lon="0.14371">
        <ele>525.6</ele>
        <time>2016-07-24T07:40:38Z</time>
      </trkpt>
      <trkpt lat="42.41516" lon="0.14365">
        <ele>525.7</ele>
        <time>2016-07-24T07:40:39Z</time>
      </trkpt>
      <trkpt lat="42.41515" lon="0.14359">
        <ele>525.8</ele>
        <time>2016-07-24T07:40:40Z</time>
      </trkpt>
      <trkpt lat="42.41514" lon="0.14354">
        <ele>525.8</ele>
        <time>2016-07-24T07:40:41Z</time>
      </trkpt>
      <trkpt lat="42.41513" lon="0.14348">
        <ele>525.9</ele>
        <time>2016-07-24T07:40:42Z</time>
      </trkpt>
      <trkpt lat="42.41513" lon="0.14342">
        <ele>526</ele>
        <time>2016-07-24T07:40:43Z</time>
      </trkpt>
      <trkpt lat="42.41512" lon="0.14336">
        <ele>526</ele>
        <time>2016-07-24T07:40:44Z</time>
      </trkpt>
      <trkpt lat="42.41512" lon="0.1433">
        <ele>526.1</ele>
        <time>2016-07-24T07:40:45Z</time>
      </trkpt>
      <trkpt lat="42.41511" lon="0.14324">
        <ele>526.1</ele>
        <time>2016-07-24T07:40:46Z</time>
      </trkpt>
      <trkpt lat="42.4151" lon="0.14318">
        <ele>526.2</ele>
        <time>2016-07-24T07:40:47Z</time>
      </trkpt>
      <trkpt lat="42.41509" lon="0.14311">
        <ele>526.2</ele>
        <time>2016-07-24T07:40:48Z</time>
      </trkpt>
      <trkpt lat="42.41508" lon="0.14305">
        <ele>526.3</ele>
        <time>2016-07-24T07:40:49Z</time>
      </trkpt>
      <trkpt lat="42.41507" lon="0.14298">
        <ele>526.4</ele>
        <time>2016-07-24T07:40:50Z</time>
      </trkpt>
      <trkpt lat="42.41506" lon="0.14292">
        <ele>526.4</ele>
        <time>2016-07-24T07:40:51Z</time>
      </trkpt>
      <trkpt lat="42.41505" lon="0.14285">
        <ele>526.7</ele>
        <time>2016-07-24T07:40:52Z</time>
      </trkpt>
      <trkpt lat="42.41504" lon="0.14279">
        <ele>527</ele>
        <time>2016-07-24T07:40:53Z</time>
      </trkpt>
      <trkpt lat="42.41503" lon="0.14272">
        <ele>527.3</ele>
        <time>2016-07-24T07:40:54Z</time>
      </trkpt>
      <trkpt lat="42.41503" lon="0.14265">
        <ele>527.6</ele>
        <time>2016-07-24T07:40:55Z</time>
      </trkpt>
      <trkpt lat="42.41502" lon="0.14259">
        <ele>527.9</ele>
        <time>2016-07-24T07:40:56Z</time>
      </trkpt>
      <trkpt lat="42.41501" lon="0.14252">
        <ele>528.2</ele>
        <time>2016-07-24T07:40:57Z</time>
      </trkpt>
      <trkpt lat="42.415" lon="0.14245">
        <ele>528.4</ele>
        <time>2016-07-24T07:40:58Z</time>
      </trkpt>
      <trkpt lat="42.41499" lon="0.14239">
        <ele>528.7</ele>
        <time>2016-07-24T07:40:59Z</time>
      </trkpt>
      <trkpt lat="42.41497" lon="0.14232">
        <ele>529</ele>
        <time>2016-07-24T07:41:00Z</time>
      </trkpt>
      <trkpt lat="42.41496" lon="0.14226">
        <ele>529.2</ele>
        <time>2016-07-24T07:41:01Z</time>
      </trkpt>
      <trkpt lat="42.41495" lon="0.14219">
        <ele>529.5</ele>
        <time>2016-07-24T07:41:02Z</time>
      </trkpt>
      <trkpt lat="42.41494" lon="0.14212">
        <ele>529.7</ele>
        <time>2016-07-24T07:41:03Z</time>
      </trkpt>
      <trkpt lat="42.41493" lon="0.14206">
        <ele>530</ele>
        <time>2016-07-24T07:41:04Z</time>
      </trkpt>
      <trkpt lat="42.41492" lon="0.142">
        <ele>530.5</ele>
        <time>2016-07-24T07:41:05Z</time>
      </trkpt>
      <trkpt lat="42.41491" lon="0.14193">
        <ele>531</ele>
        <time>2016-07-24T07:41:06Z</time>
      </trkpt>
      <trkpt lat="42.4149" lon="0.14187">
        <ele>531.5</ele>
        <time>2016-07-24T07:41:07Z</time>
      </trkpt>
      <trkpt lat="42.41489" lon="0.1418">
        <ele>532</ele>
        <time>2016-07-24T07:41:08Z</time>
      </trkpt>
      <trkpt lat="42.41488" lon="0.14174">
        <ele>532.4</ele>
        <time>2016-07-24T07:41:09Z</time>
      </trkpt>
      <trkpt lat="42.41487" lon="0.14168">
        <ele>532.9</ele>
        <time>2016-07-24T07:41:10Z</time>
      </trkpt>
      <trkpt lat="42.41486" lon="0.14162">
        <ele>533.4</ele>
        <time>2016-07-24T07:41:11Z</time>
      </trkpt>
      <trkpt lat="42.41485" lon="0.14155">
        <ele>533.9</ele>
        <time>2016-07-24T07:41:12Z</time>
      </trkpt>
      <trkpt lat="42.41483" lon="0.14149">
        <ele>534.4</ele>
        <time>2016-07-24T07:41:13Z</time>
      </trkpt>
      <trkpt lat="42.41483" lon="0.14142">
        <ele>534.9</ele>
        <time>2016-07-24T07:41:14Z</time>
      </trkpt>
      <trkpt lat="42.41481" lon="0.14136">
        <ele>535.4</ele>
        <time>2016-07-24T07:41:15Z</time>
      </trkpt>
      <trkpt lat="42.4148" lon="0.1413">
        <ele>535.9</ele>
        <time>2016-07-24T07:41:16Z</time>
      </trkpt>
      <trkpt lat="42.41478" lon="0.14124">
        <ele>536.3</ele>
        <time>2016-07-24T07:41:17Z</time>
      </trkpt>
      <trkpt lat="42.41477" lon="0.14118">
        <ele>536.4</ele>
        <time>2016-07-24T07:41:18Z</time>
      </trkpt>
      <trkpt lat="42.41476" lon="0.1411">
        <ele>536.5</ele>
        <time>2016-07-24T07:41:19Z</time>
      </trkpt>
      <trkpt lat="42.41476" lon="0.14104">
        <ele>536.6</ele>
        <time>2016-07-24T07:41:20Z</time>
      </trkpt>
      <trkpt lat="42.41475" lon="0.14097">
        <ele>536.7</ele>
        <time>2016-07-24T07:41:21Z</time>
      </trkpt>
      <trkpt lat="42.41474" lon="0.14092">
        <ele>536.7</ele>
        <time>2016-07-24T07:41:22Z</time>
      </trkpt>
      <trkpt lat="42.41473" lon="0.14086">
        <ele>536.6</ele>
        <time>2016-07-24T07:41:23Z</time>
      </trkpt>
      <trkpt lat="42.41472" lon="0.1408">
        <ele>536.6</ele>
        <time>2016-07-24T07:41:24Z</time>
      </trkpt>
      <trkpt lat="42.41471" lon="0.14074">
        <ele>536.5</ele>
        <time>2016-07-24T07:41:25Z</time>
      </trkpt>
      <trkpt lat="42.41471" lon="0.14069">
        <ele>536.5</ele>
        <time>2016-07-24T07:41:26Z</time>
      </trkpt>
      <trkpt lat="42.4147" lon="0.14064">
        <ele>536.4</ele>
        <time>2016-07-24T07:41:27Z</time>
      </trkpt>
      <trkpt lat="42.41469" lon="0.14059">
        <ele>536.3</ele>
        <time>2016-07-24T07:41:28Z</time>
      </trkpt>
      <trkpt lat="42.41468" lon="0.14054">
        <ele>536.2</ele>
        <time>2016-07-24T07:41:29Z</time>
      </trkpt>
      <trkpt lat="42.41468" lon="0.1405">
        <ele>536</ele>
        <time>2016-07-24T07:41:30Z</time>
      </trkpt>
      <trkpt lat="42.41466" lon="0.14045">
        <ele>535.8</ele>
        <time>2016-07-24T07:41:32Z</time>
      </trkpt>
      <trkpt lat="42.41465" lon="0.14039">
        <ele>535.3</ele>
        <time>2016-07-24T07:41:35Z</time>
      </trkpt>
      <trkpt lat="42.41464" lon="0.14031">
        <ele>534.7</ele>
        <time>2016-07-24T07:41:37Z</time>
      </trkpt>
      <trkpt lat="42.41463" lon="0.14027">
        <ele>534.2</ele>
        <time>2016-07-24T07:41:38Z</time>
      </trkpt>
      <trkpt lat="42.4146" lon="0.14024">
        <ele>533.5</ele>
        <time>2016-07-24T07:41:39Z</time>
      </trkpt>
      <trkpt lat="42.41457" lon="0.14022">
        <ele>532.9</ele>
        <time>2016-07-24T07:41:40Z</time>
      </trkpt>
      <trkpt lat="42.41452" lon="0.14021">
        <ele>532.6</ele>
        <time>2016-07-24T07:41:41Z</time>
      </trkpt>
      <trkpt lat="42.41447" lon="0.14022">
        <ele>532.4</ele>
        <time>2016-07-24T07:41:42Z</time>
      </trkpt>
      <trkpt lat="42.41441" lon="0.14027">
        <ele>532.1</ele>
        <time>2016-07-24T07:41:43Z</time>
      </trkpt>
      <trkpt lat="42.41437" lon="0.14027">
        <ele>531.9</ele>
        <time>2016-07-24T07:41:44Z</time>
      </trkpt>
      <trkpt lat="42.41433" lon="0.14027">
        <ele>531.6</ele>
        <time>2016-07-24T07:41:45Z</time>
      </trkpt>
      <trkpt lat="42.4143" lon="0.14029">
        <ele>531.5</ele>
        <time>2016-07-24T07:41:46Z</time>
      </trkpt>
      <trkpt lat="42.41427" lon="0.14028">
        <ele>531.3</ele>
        <time>2016-07-24T07:41:47Z</time>
      </trkpt>
      <trkpt lat="42.41423" lon="0.14029">
        <ele>531.1</ele>
        <time>2016-07-24T07:41:48Z</time>
      </trkpt>
      <trkpt lat="42.41419" lon="0.14029">
        <ele>530.8</ele>
        <time>2016-07-24T07:41:49Z</time>
      </trkpt>
      <trkpt lat="42.41416" lon="0.1403">
        <ele>530.6</ele>
        <time>2016-07-24T07:41:50Z</time>
      </trkpt>
      <trkpt lat="42.41413" lon="0.1403">
        <ele>530.4</ele>
        <time>2016-07-24T07:41:51Z</time>
      </trkpt>
      <trkpt lat="42.41409" lon="0.14031">
        <ele>530.2</ele>
        <time>2016-07-24T07:41:52Z</time>
      </trkpt>
      <trkpt lat="42.41406" lon="0.14031">
        <ele>530</ele>
        <time>2016-07-24T07:41:53Z</time>
      </trkpt>
      <trkpt lat="42.41403" lon="0.14031">
        <ele>529.7</ele>
        <time>2016-07-24T07:41:55Z</time>
      </trkpt>
      <trkpt lat="42.41397" lon="0.14039">
        <ele>529.5</ele>
        <time>2016-07-24T07:43:06Z</time>
      </trkpt>
      <trkpt lat="42.41394" lon="0.14039">
        <ele>529.3</ele>
        <time>2016-07-24T07:43:07Z</time>
      </trkpt>
      <trkpt lat="42.41391" lon="0.14039">
        <ele>529.1</ele>
        <time>2016-07-24T07:43:08Z</time>
      </trkpt>
      <trkpt lat="42.41387" lon="0.14039">
        <ele>528.8</ele>
        <time>2016-07-24T07:43:09Z</time>
      </trkpt>
      <trkpt lat="42.41382" lon="0.14038">
        <ele>528.5</ele>
        <time>2016-07-24T07:43:10Z</time>
      </trkpt>
      <trkpt lat="42.41378" lon="0.14038">
        <ele>528.2</ele>
        <time>2016-07-24T07:43:11Z</time>
      </trkpt>
      <trkpt lat="42.41374" lon="0.14037">
        <ele>528</ele>
        <time>2016-07-24T07:43:12Z</time>
      </trkpt>
      <trkpt lat="42.4137" lon="0.14037">
        <ele>528.2</ele>
        <time>2016-07-24T07:43:13Z</time>
      </trkpt>
      <trkpt lat="42.41366" lon="0.14037">
        <ele>528.5</ele>
        <time>2016-07-24T07:43:14Z</time>
      </trkpt>
      <trkpt lat="42.41362" lon="0.14036">
        <ele>528.7</ele>
        <time>2016-07-24T07:43:15Z</time>
      </trkpt>
      <trkpt lat="42.41358" lon="0.14036">
        <ele>528.9</ele>
        <time>2016-07-24T07:43:16Z</time>
      </trkpt>
      <trkpt lat="42.41353" lon="0.14036">
        <ele>529.2</ele>
        <time>2016-07-24T07:43:17Z</time>
      </trkpt>
      <trkpt lat="42.41349" lon="0.14036">
        <ele>529.4</ele>
        <time>2016-07-24T07:43:18Z</time>
      </trkpt>
      <trkpt lat="42.41345" lon="0.14036">
        <ele>529.6</ele>
        <time>2016-07-24T07:43:19Z</time>
      </trkpt>
      <trkpt lat="42.41341" lon="0.14036">
        <ele>529.9</ele>
        <time>2016-07-24T07:43:20Z</time>
      </trkpt>
      <trkpt lat="42.41337" lon="0.14035">
        <ele>530.1</ele>
        <time>2016-07-24T07:43:21Z</time>
      </trkpt>
      <trkpt lat="42.41333" lon="0.14036">
        <ele>530.4</ele>
        <time>2016-07-24T07:43:22Z</time>
      </trkpt>
      <trkpt lat="42.41328" lon="0.14036">
        <ele>530.6</ele>
        <time>2016-07-24T07:43:23Z</time>
      </trkpt>
      <trkpt lat="42.41324" lon="0.14036">
        <ele>530.9</ele>
        <time>2016-07-24T07:43:24Z</time>
      </trkpt>
      <trkpt lat="42.4132" lon="0.14036">
        <ele>531.1</ele>
        <time>2016-07-24T07:43:25Z</time>
      </trkpt>
      <trkpt lat="42.41315" lon="0.14036">
        <ele>531.4</ele>
        <time>2016-07-24T07:43:26Z</time>
      </trkpt>
      <trkpt lat="42.41311" lon="0.14037">
        <ele>531.7</ele>
        <time>2016-07-24T07:43:27Z</time>
      </trkpt>
      <trkpt lat="42.41306" lon="0.14037">
        <ele>531.9</ele>
        <time>2016-07-24T07:43:28Z</time>
      </trkpt>
      <trkpt lat="42.41302" lon="0.14037">
        <ele>532.2</ele>
        <time>2016-07-24T07:43:29Z</time>
      </trkpt>
      <trkpt lat="42.41298" lon="0.14037">
        <ele>532.5</ele>
        <time>2016-07-24T07:43:30Z</time>
      </trkpt>
      <trkpt lat="42.41293" lon="0.14038">
        <ele>532.7</ele>
        <time>2016-07-24T07:43:31Z</time>
      </trkpt>
      <trkpt lat="42.41289" lon="0.14038">
        <ele>533</ele>
        <time>2016-07-24T07:43:32Z</time>
      </trkpt>
      <trkpt lat="42.41285" lon="0.14039">
        <ele>533.2</ele>
        <time>2016-07-24T07:43:33Z</time>
      </trkpt>
      <trkpt lat="42.4128" lon="0.14039">
        <ele>533.4</ele>
        <time>2016-07-24T07:43:34Z</time>
      </trkpt>
      <trkpt lat="42.41276" lon="0.14039">
        <ele>533.6</ele>
        <time>2016-07-24T07:43:35Z</time>
      </trkpt>
      <trkpt lat="42.41272" lon="0.1404">
        <ele>533.9</ele>
        <time>2016-07-24T07:43:36Z</time>
      </trkpt>
      <trkpt lat="42.41268" lon="0.1404">
        <ele>534.1</ele>
        <time>2016-07-24T07:43:37Z</time>
      </trkpt>
      <trkpt lat="42.41264" lon="0.1404">
        <ele>534.3</ele>
        <time>2016-07-24T07:43:38Z</time>
      </trkpt>
      <trkpt lat="42.41261" lon="0.14039">
        <ele>534.4</ele>
        <time>2016-07-24T07:43:39Z</time>
      </trkpt>
      <trkpt lat="42.41257" lon="0.14037">
        <ele>534.5</ele>
        <time>2016-07-24T07:43:40Z</time>
      </trkpt>
      <trkpt lat="42.41254" lon="0.14033">
        <ele>534.6</ele>
        <time>2016-07-24T07:43:41Z</time>
      </trkpt>
      <trkpt lat="42.41251" lon="0.14029">
        <ele>534.6</ele>
        <time>2016-07-24T07:43:42Z</time>
      </trkpt>
      <trkpt lat="42.41248" lon="0.14026">
        <ele>534.8</ele>
        <time>2016-07-24T07:43:43Z</time>
      </trkpt>
      <trkpt lat="42.41244" lon="0.14025">
        <ele>535</ele>
        <time>2016-07-24T07:43:44Z</time>
      </trkpt>
      <trkpt lat="42.41239" lon="0.14026">
        <ele>535.2</ele>
        <time>2016-07-24T07:43:45Z</time>
      </trkpt>
      <trkpt lat="42.41235" lon="0.14026">
        <ele>535.5</ele>
        <time>2016-07-24T07:43:46Z</time>
      </trkpt>
      <trkpt lat="42.41231" lon="0.14026">
        <ele>535.7</ele>
        <time>2016-07-24T07:43:47Z</time>
      </trkpt>
      <trkpt lat="42.41227" lon="0.14022">
        <ele>535.9</ele>
        <time>2016-07-24T07:43:48Z</time>
      </trkpt>
      <trkpt lat="42.41224" lon="0.14016">
        <ele>536</ele>
        <time>2016-07-24T07:43:49Z</time>
      </trkpt>
      <trkpt lat="42.41221" lon="0.14011">
        <ele>536.2</ele>
        <time>2016-07-24T07:43:50Z</time>
      </trkpt>
      <trkpt lat="42.41218" lon="0.14007">
        <ele>536.3</ele>
        <time>2016-07-24T07:43:51Z</time>
      </trkpt>
      <trkpt lat="42.41217" lon="0.14001">
        <ele>536.4</ele>
        <time>2016-07-24T07:43:52Z</time>
      </trkpt>
      <trkpt lat="42.41218" lon="0.13995">
        <ele>536.3</ele>
        <time>2016-07-24T07:43:53Z</time>
      </trkpt>
      <trkpt lat="42.4122" lon="0.13989">
        <ele>536.1</ele>
        <time>2016-07-24T07:43:54Z</time>
      </trkpt>
      <trkpt lat="42.41223" lon="0.13985">
        <ele>535.9</ele>
        <time>2016-07-24T07:43:55Z</time>
      </trkpt>
      <trkpt lat="42.41225" lon="0.13983">
        <ele>535.6</ele>
        <time>2016-07-24T07:43:56Z</time>
      </trkpt>
      <trkpt lat="42.4123" lon="0.1398">
        <ele>535.2</ele>
        <time>2016-07-24T07:43:58Z</time>
      </trkpt>
      <trkpt lat="42.41235" lon="0.13977">
        <ele>534.7</ele>
        <time>2016-07-24T07:44:00Z</time>
      </trkpt>
      <trkpt lat="42.41239" lon="0.13972">
        <ele>534.3</ele>
        <time>2016-07-24T07:44:02Z</time>
      </trkpt>
      <trkpt lat="42.41242" lon="0.1397">
        <ele>534</ele>
        <time>2016-07-24T07:44:03Z</time>
      </trkpt>
      <trkpt lat="42.41245" lon="0.13968">
        <ele>533.7</ele>
        <time>2016-07-24T07:44:04Z</time>
      </trkpt>
      <trkpt lat="42.41248" lon="0.13967">
        <ele>533.4</ele>
        <time>2016-07-24T07:44:05Z</time>
      </trkpt>
      <trkpt lat="42.41252" lon="0.13965">
        <ele>532.9</ele>
        <time>2016-07-24T07:44:06Z</time>
      </trkpt>
      <trkpt lat="42.41258" lon="0.13964">
        <ele>532.4</ele>
        <time>2016-07-24T07:44:07Z</time>
      </trkpt>
      <trkpt lat="42.41262" lon="0.13962">
        <ele>532</ele>
        <time>2016-07-24T07:44:08Z</time>
      </trkpt>
      <trkpt lat="42.41265" lon="0.13958">
        <ele>531.5</ele>
        <time>2016-07-24T07:44:09Z</time>
      </trkpt>
      <trkpt lat="42.41268" lon="0.13953">
        <ele>531.4</ele>
        <time>2016-07-24T07:44:10Z</time>
      </trkpt>
      <trkpt lat="42.41269" lon="0.13947">
        <ele>531.4</ele>
        <time>2016-07-24T07:44:11Z</time>
      </trkpt>
      <trkpt lat="42.4127" lon="0.1394">
        <ele>531.4</ele>
        <time>2016-07-24T07:44:12Z</time>
      </trkpt>
      <trkpt lat="42.41272" lon="0.13934">
        <ele>531.4</ele>
        <time>2016-07-24T07:44:13Z</time>
      </trkpt>
      <trkpt lat="42.41273" lon="0.13927">
        <ele>531.5</ele>
        <time>2016-07-24T07:44:14Z</time>
      </trkpt>
      <trkpt lat="42.41273" lon="0.13922">
        <ele>531.5</ele>
        <time>2016-07-24T07:44:15Z</time>
      </trkpt>
      <trkpt lat="42.41274" lon="0.13915">
        <ele>531.7</ele>
        <time>2016-07-24T07:44:16Z</time>
      </trkpt>
      <trkpt lat="42.41274" lon="0.13909">
        <ele>531.8</ele>
        <time>2016-07-24T07:44:17Z</time>
      </trkpt>
      <trkpt lat="42.41273" lon="0.13903">
        <ele>531.9</ele>
        <time>2016-07-24T07:44:18Z</time>
      </trkpt>
      <trkpt lat="42.41274" lon="0.13897">
        <ele>532</ele>
        <time>2016-07-24T07:44:19Z</time>
      </trkpt>
      <trkpt lat="42.41273" lon="0.13892">
        <ele>532.2</ele>
        <time>2016-07-24T07:44:20Z</time>
      </trkpt>
      <trkpt lat="42.41273" lon="0.13886">
        <ele>532.3</ele>
        <time>2016-07-24T07:44:21Z</time>
      </trkpt>
      <trkpt lat="42.41274" lon="0.13881">
        <ele>532.4</ele>
        <time>2016-07-24T07:44:22Z</time>
      </trkpt>
      <trkpt lat="42.41274" lon="0.13875">
        <ele>532.5</ele>
        <time>2016-07-24T07:44:23Z</time>
      </trkpt>
      <trkpt lat="42.41274" lon="0.1387">
        <ele>532.6</ele>
        <time>2016-07-24T07:44:24Z</time>
      </trkpt>
      <trkpt lat="42.41274" lon="0.13864">
        <ele>532.6</ele>
        <time>2016-07-24T07:44:25Z</time>
      </trkpt>
      <trkpt lat="42.41274" lon="0.13857">
        <ele>532.7</ele>
        <time>2016-07-24T07:44:26Z</time>
      </trkpt>
      <trkpt lat="42.41274" lon="0.13851">
        <ele>532.8</ele>
        <time>2016-07-24T07:44:27Z</time>
      </trkpt>
      <trkpt lat="42.41274" lon="0.13846">
        <ele>532.8</ele>
        <time>2016-07-24T07:44:28Z</time>
      </trkpt>
      <trkpt lat="42.41274" lon="0.13839">
        <ele>532.9</ele>
        <time>2016-07-24T07:44:29Z</time>
      </trkpt>
      <trkpt lat="42.41275" lon="0.13833">
        <ele>532.9</ele>
        <time>2016-07-24T07:44:30Z</time>
      </trkpt>
      <trkpt lat="42.41277" lon="0.13828">
        <ele>532.8</ele>
        <time>2016-07-24T07:44:31Z</time>
      </trkpt>
      <trkpt lat="42.41279" lon="0.13822">
        <ele>532.7</ele>
        <time>2016-07-24T07:44:32Z</time>
      </trkpt>
      <trkpt lat="42.4128" lon="0.13816">
        <ele>532.7</ele>
        <time>2016-07-24T07:44:33Z</time>
      </trkpt>
      <trkpt lat="42.41282" lon="0.13809">
        <ele>532.6</ele>
        <time>2016-07-24T07:44:34Z</time>
      </trkpt>
      <trkpt lat="42.41283" lon="0.13802">
        <ele>532.6</ele>
        <time>2016-07-24T07:44:35Z</time>
      </trkpt>
      <trkpt lat="42.41285" lon="0.13797">
        <ele>532.5</ele>
        <time>2016-07-24T07:44:36Z</time>
      </trkpt>
      <trkpt lat="42.41286" lon="0.13791">
        <ele>532.4</ele>
        <time>2016-07-24T07:44:37Z</time>
      </trkpt>
      <trkpt lat="42.41288" lon="0.13784">
        <ele>532.2</ele>
        <time>2016-07-24T07:44:38Z</time>
      </trkpt>
      <trkpt lat="42.4129" lon="0.13778">
        <ele>532</ele>
        <time>2016-07-24T07:44:39Z</time>
      </trkpt>
      <trkpt lat="42.41291" lon="0.13772">
        <ele>531.8</ele>
        <time>2016-07-24T07:44:40Z</time>
      </trkpt>
      <trkpt lat="42.41292" lon="0.13766">
        <ele>531.7</ele>
        <time>2016-07-24T07:44:41Z</time>
      </trkpt>
      <trkpt lat="42.41294" lon="0.1376">
        <ele>531.6</ele>
        <time>2016-07-24T07:44:42Z</time>
      </trkpt>
      <trkpt lat="42.41297" lon="0.13755">
        <ele>531.5</ele>
        <time>2016-07-24T07:44:43Z</time>
      </trkpt>
      <trkpt lat="42.41299" lon="0.13748">
        <ele>531.4</ele>
        <time>2016-07-24T07:44:44Z</time>
      </trkpt>
      <trkpt lat="42.41301" lon="0.13743">
        <ele>531.3</ele>
        <time>2016-07-24T07:44:45Z</time>
      </trkpt>
      <trkpt lat="42.41304" lon="0.13738">
        <ele>531.3</ele>
        <time>2016-07-24T07:44:46Z</time>
      </trkpt>
      <trkpt lat="42.41305" lon="0.13733">
        <ele>531.2</ele>
        <time>2016-07-24T07:44:47Z</time>
      </trkpt>
      <trkpt lat="42.41308" lon="0.13727">
        <ele>531.1</ele>
        <time>2016-07-24T07:44:48Z</time>
      </trkpt>
      <trkpt lat="42.4131" lon="0.13722">
        <ele>531.1</ele>
        <time>2016-07-24T07:44:49Z</time>
      </trkpt>
      <trkpt lat="42.41312" lon="0.13716">
        <ele>531</ele>
        <time>2016-07-24T07:44:50Z</time>
      </trkpt>
      <trkpt lat="42.41315" lon="0.13711">
        <ele>531</ele>
        <time>2016-07-24T07:44:51Z</time>
      </trkpt>
      <trkpt lat="42.41317" lon="0.13706">
        <ele>531</ele>
        <time>2016-07-24T07:44:52Z</time>
      </trkpt>
      <trkpt lat="42.4132" lon="0.137">
        <ele>531.1</ele>
        <time>2016-07-24T07:44:53Z</time>
      </trkpt>
      <trkpt lat="42.41322" lon="0.13695">
        <ele>531.2</ele>
        <time>2016-07-24T07:44:54Z</time>
      </trkpt>
      <trkpt lat="42.41325" lon="0.13689">
        <ele>531.3</ele>
        <time>2016-07-24T07:44:55Z</time>
      </trkpt>
      <trkpt lat="42.41328" lon="0.13684">
        <ele>531.3</ele>
        <time>2016-07-24T07:44:56Z</time>
      </trkpt>
      <trkpt lat="42.41329" lon="0.13679">
        <ele>531.4</ele>
        <time>2016-07-24T07:44:57Z</time>
      </trkpt>
      <trkpt lat="42.41332" lon="0.13674">
        <ele>531.4</ele>
        <time>2016-07-24T07:44:58Z</time>
      </trkpt>
      <trkpt lat="42.41335" lon="0.1367">
        <ele>531.4</ele>
        <time>2016-07-24T07:44:59Z</time>
      </trkpt>
      <trkpt lat="42.41337" lon="0.13665">
        <ele>531.5</ele>
        <time>2016-07-24T07:45:00Z</time>
      </trkpt>
      <trkpt lat="42.41341" lon="0.1366">
        <ele>531.5</ele>
        <time>2016-07-24T07:45:01Z</time>
      </trkpt>
      <trkpt lat="42.41344" lon="0.13656">
        <ele>531.5</ele>
        <time>2016-07-24T07:45:02Z</time>
      </trkpt>
      <trkpt lat="42.41347" lon="0.13651">
        <ele>531.5</ele>
        <time>2016-07-24T07:45:03Z</time>
      </trkpt>
      <trkpt lat="42.41351" lon="0.13647">
        <ele>531.4</ele>
        <time>2016-07-24T07:45:04Z</time>
      </trkpt>
      <trkpt lat="42.41354" lon="0.13642">
        <ele>531.4</ele>
        <time>2016-07-24T07:45:05Z</time>
      </trkpt>
      <trkpt lat="42.41358" lon="0.13638">
        <ele>531.4</ele>
        <time>2016-07-24T07:45:06Z</time>
      </trkpt>
      <trkpt lat="42.41361" lon="0.13633">
        <ele>531.3</ele>
        <time>2016-07-24T07:45:07Z</time>
      </trkpt>
      <trkpt lat="42.41364" lon="0.13629">
        <ele>531.2</ele>
        <time>2016-07-24T07:45:08Z</time>
      </trkpt>
      <trkpt lat="42.41368" lon="0.13623">
        <ele>531.2</ele>
        <time>2016-07-24T07:45:09Z</time>
      </trkpt>
      <trkpt lat="42.4137" lon="0.13618">
        <ele>531.1</ele>
        <time>2016-07-24T07:45:10Z</time>
      </trkpt>
      <trkpt lat="42.41373" lon="0.13613">
        <ele>530.9</ele>
        <time>2016-07-24T07:45:11Z</time>
      </trkpt>
      <trkpt lat="42.41376" lon="0.13609">
        <ele>530.8</ele>
        <time>2016-07-24T07:45:12Z</time>
      </trkpt>
      <trkpt lat="42.41379" lon="0.13604">
        <ele>530.8</ele>
        <time>2016-07-24T07:45:13Z</time>
      </trkpt>
      <trkpt lat="42.41381" lon="0.13598">
        <ele>530.7</ele>
        <time>2016-07-24T07:45:14Z</time>
      </trkpt>
      <trkpt lat="42.41384" lon="0.13592">
        <ele>530.7</ele>
        <time>2016-07-24T07:45:15Z</time>
      </trkpt>
      <trkpt lat="42.41387" lon="0.13586">
        <ele>530.7</ele>
        <time>2016-07-24T07:45:16Z</time>
      </trkpt>
      <trkpt lat="42.41389" lon="0.13581">
        <ele>530.7</ele>
        <time>2016-07-24T07:45:17Z</time>
      </trkpt>
      <trkpt lat="42.41392" lon="0.13576">
        <ele>530.7</ele>
        <time>2016-07-24T07:45:18Z</time>
      </trkpt>
      <trkpt lat="42.41395" lon="0.13571">
        <ele>530.7</ele>
        <time>2016-07-24T07:45:19Z</time>
      </trkpt>
      <trkpt lat="42.41398" lon="0.13566">
        <ele>530.7</ele>
        <time>2016-07-24T07:45:20Z</time>
      </trkpt>
      <trkpt lat="42.414" lon="0.13561">
        <ele>530.7</ele>
        <time>2016-07-24T07:45:21Z</time>
      </trkpt>
      <trkpt lat="42.41403" lon="0.13555">
        <ele>530.7</ele>
        <time>2016-07-24T07:45:22Z</time>
      </trkpt>
      <trkpt lat="42.41406" lon="0.13549">
        <ele>530.8</ele>
        <time>2016-07-24T07:45:23Z</time>
      </trkpt>
      <trkpt lat="42.41408" lon="0.13544">
        <ele>530.8</ele>
        <time>2016-07-24T07:45:24Z</time>
      </trkpt>
      <trkpt lat="42.4141" lon="0.13538">
        <ele>530.9</ele>
        <time>2016-07-24T07:45:25Z</time>
      </trkpt>
      <trkpt lat="42.41412" lon="0.13532">
        <ele>531.1</ele>
        <time>2016-07-24T07:45:26Z</time>
      </trkpt>
      <trkpt lat="42.41414" lon="0.13525">
        <ele>531.3</ele>
        <time>2016-07-24T07:45:27Z</time>
      </trkpt>
      <trkpt lat="42.41415" lon="0.13518">
        <ele>531.5</ele>
        <time>2016-07-24T07:45:28Z</time>
      </trkpt>
      <trkpt lat="42.41417" lon="0.13513">
        <ele>531.7</ele>
        <time>2016-07-24T07:45:29Z</time>
      </trkpt>
      <trkpt lat="42.4142" lon="0.13507">
        <ele>531.9</ele>
        <time>2016-07-24T07:45:30Z</time>
      </trkpt>
      <trkpt lat="42.41422" lon="0.13501">
        <ele>532</ele>
        <time>2016-07-24T07:45:31Z</time>
      </trkpt>
      <trkpt lat="42.41424" lon="0.13495">
        <ele>532.2</ele>
        <time>2016-07-24T07:45:32Z</time>
      </trkpt>
      <trkpt lat="42.41426" lon="0.13489">
        <ele>532.4</ele>
        <time>2016-07-24T07:45:33Z</time>
      </trkpt>
      <trkpt lat="42.41428" lon="0.13483">
        <ele>532.5</ele>
        <time>2016-07-24T07:45:34Z</time>
      </trkpt>
      <trkpt lat="42.4143" lon="0.13477">
        <ele>532.6</ele>
        <time>2016-07-24T07:45:35Z</time>
      </trkpt>
      <trkpt lat="42.41432" lon="0.13472">
        <ele>532.7</ele>
        <time>2016-07-24T07:45:36Z</time>
      </trkpt>
      <trkpt lat="42.41435" lon="0.13466">
        <ele>532.9</ele>
        <time>2016-07-24T07:45:37Z</time>
      </trkpt>
      <trkpt lat="42.41437" lon="0.1346">
        <ele>533</ele>
        <time>2016-07-24T07:45:38Z</time>
      </trkpt>
      <trkpt lat="42.41439" lon="0.13453">
        <ele>533.1</ele>
        <time>2016-07-24T07:45:39Z</time>
      </trkpt>
      <trkpt lat="42.41441" lon="0.13447">
        <ele>533.3</ele>
        <time>2016-07-24T07:45:40Z</time>
      </trkpt>
      <trkpt lat="42.41443" lon="0.13442">
        <ele>533.4</ele>
        <time>2016-07-24T07:45:41Z</time>
      </trkpt>
      <trkpt lat="42.41446" lon="0.13436">
        <ele>533.5</ele>
        <time>2016-07-24T07:45:42Z</time>
      </trkpt>
      <trkpt lat="42.41447" lon="0.13431">
        <ele>533.7</ele>
        <time>2016-07-24T07:45:43Z</time>
      </trkpt>
      <trkpt lat="42.41448" lon="0.13426">
        <ele>533.8</ele>
        <time>2016-07-24T07:45:44Z</time>
      </trkpt>
      <trkpt lat="42.41449" lon="0.13419">
        <ele>533.9</ele>
        <time>2016-07-24T07:45:45Z</time>
      </trkpt>
      <trkpt lat="42.4145" lon="0.13413">
        <ele>534.1</ele>
        <time>2016-07-24T07:45:46Z</time>
      </trkpt>
      <trkpt lat="42.41451" lon="0.13406">
        <ele>534.2</ele>
        <time>2016-07-24T07:45:47Z</time>
      </trkpt>
      <trkpt lat="42.41452" lon="0.13399">
        <ele>534.4</ele>
        <time>2016-07-24T07:45:48Z</time>
      </trkpt>
      <trkpt lat="42.41453" lon="0.13392">
        <ele>534.6</ele>
        <time>2016-07-24T07:45:49Z</time>
      </trkpt>
      <trkpt lat="42.41454" lon="0.13386">
        <ele>534.7</ele>
        <time>2016-07-24T07:45:50Z</time>
      </trkpt>
      <trkpt lat="42.41455" lon="0.1338">
        <ele>534.9</ele>
        <time>2016-07-24T07:45:51Z</time>
      </trkpt>
      <trkpt lat="42.41456" lon="0.13374">
        <ele>535</ele>
        <time>2016-07-24T07:45:52Z</time>
      </trkpt>
      <trkpt lat="42.41457" lon="0.13369">
        <ele>534.9</ele>
        <time>2016-07-24T07:45:53Z</time>
      </trkpt>
      <trkpt lat="42.41459" lon="0.13363">
        <ele>534.8</ele>
        <time>2016-07-24T07:45:54Z</time>
      </trkpt>
      <trkpt lat="42.4146" lon="0.13356">
        <ele>534.7</ele>
        <time>2016-07-24T07:45:55Z</time>
      </trkpt>
      <trkpt lat="42.41461" lon="0.1335">
        <ele>534.6</ele>
        <time>2016-07-24T07:45:56Z</time>
      </trkpt>
      <trkpt lat="42.41461" lon="0.13342">
        <ele>534.5</ele>
        <time>2016-07-24T07:45:57Z</time>
      </trkpt>
      <trkpt lat="42.41462" lon="0.13336">
        <ele>534.4</ele>
        <time>2016-07-24T07:45:58Z</time>
      </trkpt>
      <trkpt lat="42.41463" lon="0.1333">
        <ele>534.3</ele>
        <time>2016-07-24T07:45:59Z</time>
      </trkpt>
      <trkpt lat="42.41465" lon="0.13325">
        <ele>534.2</ele>
        <time>2016-07-24T07:46:00Z</time>
      </trkpt>
      <trkpt lat="42.41465" lon="0.13319">
        <ele>534.1</ele>
        <time>2016-07-24T07:46:01Z</time>
      </trkpt>
      <trkpt lat="42.41466" lon="0.13313">
        <ele>534</ele>
        <time>2016-07-24T07:46:02Z</time>
      </trkpt>
      <trkpt lat="42.41467" lon="0.13306">
        <ele>533.9</ele>
        <time>2016-07-24T07:46:03Z</time>
      </trkpt>
      <trkpt lat="42.41467" lon="0.133">
        <ele>533.9</ele>
        <time>2016-07-24T07:46:04Z</time>
      </trkpt>
      <trkpt lat="42.41467" lon="0.13294">
        <ele>533.8</ele>
        <time>2016-07-24T07:46:05Z</time>
      </trkpt>
      <trkpt lat="42.41467" lon="0.13288">
        <ele>533.9</ele>
        <time>2016-07-24T07:46:06Z</time>
      </trkpt>
      <trkpt lat="42.41467" lon="0.13281">
        <ele>533.9</ele>
        <time>2016-07-24T07:46:07Z</time>
      </trkpt>
      <trkpt lat="42.41465" lon="0.13274">
        <ele>534.1</ele>
        <time>2016-07-24T07:46:08Z</time>
      </trkpt>
      <trkpt lat="42.41465" lon="0.13269">
        <ele>534.1</ele>
        <time>2016-07-24T07:46:09Z</time>
      </trkpt>
      <trkpt lat="42.41466" lon="0.13262">
        <ele>534.2</ele>
        <time>2016-07-24T07:46:10Z</time>
      </trkpt>
      <trkpt lat="42.41466" lon="0.13257">
        <ele>534.3</ele>
        <time>2016-07-24T07:46:11Z</time>
      </trkpt>
      <trkpt lat="42.41465" lon="0.13249">
        <ele>534.4</ele>
        <time>2016-07-24T07:46:12Z</time>
      </trkpt>
      <trkpt lat="42.41464" lon="0.13244">
        <ele>534.5</ele>
        <time>2016-07-24T07:46:13Z</time>
      </trkpt>
      <trkpt lat="42.41464" lon="0.13239">
        <ele>534.6</ele>
        <time>2016-07-24T07:46:14Z</time>
      </trkpt>
      <trkpt lat="42.41462" lon="0.13232">
        <ele>534.7</ele>
        <time>2016-07-24T07:46:15Z</time>
      </trkpt>
      <trkpt lat="42.41462" lon="0.13226">
        <ele>534.7</ele>
        <time>2016-07-24T07:46:16Z</time>
      </trkpt>
      <trkpt lat="42.41462" lon="0.13221">
        <ele>534.8</ele>
        <time>2016-07-24T07:46:17Z</time>
      </trkpt>
      <trkpt lat="42.41461" lon="0.13215">
        <ele>534.9</ele>
        <time>2016-07-24T07:46:18Z</time>
      </trkpt>
      <trkpt lat="42.4146" lon="0.13208">
        <ele>535</ele>
        <time>2016-07-24T07:46:19Z</time>
      </trkpt>
      <trkpt lat="42.41458" lon="0.13202">
        <ele>535.1</ele>
        <time>2016-07-24T07:46:20Z</time>
      </trkpt>
      <trkpt lat="42.41456" lon="0.13195">
        <ele>535.3</ele>
        <time>2016-07-24T07:46:21Z</time>
      </trkpt>
      <trkpt lat="42.41455" lon="0.13189">
        <ele>535.4</ele>
        <time>2016-07-24T07:46:22Z</time>
      </trkpt>
      <trkpt lat="42.41455" lon="0.13183">
        <ele>535.5</ele>
        <time>2016-07-24T07:46:23Z</time>
      </trkpt>
      <trkpt lat="42.41453" lon="0.13176">
        <ele>535.6</ele>
        <time>2016-07-24T07:46:24Z</time>
      </trkpt>
      <trkpt lat="42.41452" lon="0.13171">
        <ele>535.7</ele>
        <time>2016-07-24T07:46:25Z</time>
      </trkpt>
      <trkpt lat="42.41451" lon="0.13165">
        <ele>535.8</ele>
        <time>2016-07-24T07:46:26Z</time>
      </trkpt>
      <trkpt lat="42.4145" lon="0.13159">
        <ele>536</ele>
        <time>2016-07-24T07:46:27Z</time>
      </trkpt>
      <trkpt lat="42.41448" lon="0.13153">
        <ele>536.1</ele>
        <time>2016-07-24T07:46:28Z</time>
      </trkpt>
      <trkpt lat="42.41447" lon="0.13146">
        <ele>536.3</ele>
        <time>2016-07-24T07:46:29Z</time>
      </trkpt>
      <trkpt lat="42.41445" lon="0.1314">
        <ele>536.4</ele>
        <time>2016-07-24T07:46:30Z</time>
      </trkpt>
      <trkpt lat="42.41444" lon="0.13133">
        <ele>536.6</ele>
        <time>2016-07-24T07:46:31Z</time>
      </trkpt>
      <trkpt lat="42.41442" lon="0.13127">
        <ele>536.7</ele>
        <time>2016-07-24T07:46:32Z</time>
      </trkpt>
      <trkpt lat="42.41441" lon="0.13121">
        <ele>536.9</ele>
        <time>2016-07-24T07:46:33Z</time>
      </trkpt>
      <trkpt lat="42.4144" lon="0.13114">
        <ele>537.1</ele>
        <time>2016-07-24T07:46:34Z</time>
      </trkpt>
      <trkpt lat="42.41439" lon="0.13108">
        <ele>537.2</ele>
        <time>2016-07-24T07:46:35Z</time>
      </trkpt>
      <trkpt lat="42.41437" lon="0.131">
        <ele>537.5</ele>
        <time>2016-07-24T07:46:36Z</time>
      </trkpt>
      <trkpt lat="42.41437" lon="0.13094">
        <ele>537.6</ele>
        <time>2016-07-24T07:46:37Z</time>
      </trkpt>
      <trkpt lat="42.41436" lon="0.13088">
        <ele>537.8</ele>
        <time>2016-07-24T07:46:38Z</time>
      </trkpt>
      <trkpt lat="42.41435" lon="0.13083">
        <ele>537.9</ele>
        <time>2016-07-24T07:46:39Z</time>
      </trkpt>
      <trkpt lat="42.41434" lon="0.13078">
        <ele>538.2</ele>
        <time>2016-07-24T07:46:40Z</time>
      </trkpt>
      <trkpt lat="42.41433" lon="0.13071">
        <ele>538.4</ele>
        <time>2016-07-24T07:46:41Z</time>
      </trkpt>
      <trkpt lat="42.41432" lon="0.13064">
        <ele>538.7</ele>
        <time>2016-07-24T07:46:42Z</time>
      </trkpt>
      <trkpt lat="42.41432" lon="0.13059">
        <ele>538.8</ele>
        <time>2016-07-24T07:46:43Z</time>
      </trkpt>
      <trkpt lat="42.4143" lon="0.13052">
        <ele>539.2</ele>
        <time>2016-07-24T07:46:44Z</time>
      </trkpt>
      <trkpt lat="42.41429" lon="0.13046">
        <ele>539.4</ele>
        <time>2016-07-24T07:46:45Z</time>
      </trkpt>
      <trkpt lat="42.41428" lon="0.13039">
        <ele>539.7</ele>
        <time>2016-07-24T07:46:46Z</time>
      </trkpt>
      <trkpt lat="42.41427" lon="0.13032">
        <ele>539.8</ele>
        <time>2016-07-24T07:46:47Z</time>
      </trkpt>
      <trkpt lat="42.41426" lon="0.13027">
        <ele>539.9</ele>
        <time>2016-07-24T07:46:48Z</time>
      </trkpt>
      <trkpt lat="42.41427" lon="0.13022">
        <ele>539.8</ele>
        <time>2016-07-24T07:46:49Z</time>
      </trkpt>
      <trkpt lat="42.41425" lon="0.13018">
        <ele>540</ele>
        <time>2016-07-24T07:46:50Z</time>
      </trkpt>
      <trkpt lat="42.41425" lon="0.13012">
        <ele>540</ele>
        <time>2016-07-24T07:46:51Z</time>
      </trkpt>
      <trkpt lat="42.41422" lon="0.13005">
        <ele>540.4</ele>
        <time>2016-07-24T07:46:52Z</time>
      </trkpt>
      <trkpt lat="42.41421" lon="0.12999">
        <ele>540.5</ele>
        <time>2016-07-24T07:46:53Z</time>
      </trkpt>
      <trkpt lat="42.4142" lon="0.12993">
        <ele>540.7</ele>
        <time>2016-07-24T07:46:54Z</time>
      </trkpt>
      <trkpt lat="42.41419" lon="0.12988">
        <ele>540.7</ele>
        <time>2016-07-24T07:46:55Z</time>
      </trkpt>
      <trkpt lat="42.41418" lon="0.12982">
        <ele>540.9</ele>
        <time>2016-07-24T07:46:56Z</time>
      </trkpt>
      <trkpt lat="42.41417" lon="0.12975">
        <ele>540.9</ele>
        <time>2016-07-24T07:46:57Z</time>
      </trkpt>
      <trkpt lat="42.41415" lon="0.12969">
        <ele>541.2</ele>
        <time>2016-07-24T07:46:58Z</time>
      </trkpt>
      <trkpt lat="42.41414" lon="0.12963">
        <ele>541.3</ele>
        <time>2016-07-24T07:46:59Z</time>
      </trkpt>
      <trkpt lat="42.41413" lon="0.12957">
        <ele>541.5</ele>
        <time>2016-07-24T07:47:00Z</time>
      </trkpt>
      <trkpt lat="42.41411" lon="0.12951">
        <ele>541.5</ele>
        <time>2016-07-24T07:47:01Z</time>
      </trkpt>
      <trkpt lat="42.4141" lon="0.12945">
        <ele>541.5</ele>
        <time>2016-07-24T07:47:02Z</time>
      </trkpt>
      <trkpt lat="42.4141" lon="0.12938">
        <ele>541.4</ele>
        <time>2016-07-24T07:47:03Z</time>
      </trkpt>
      <trkpt lat="42.41409" lon="0.12932">
        <ele>541.3</ele>
        <time>2016-07-24T07:47:04Z</time>
      </trkpt>
      <trkpt lat="42.41409" lon="0.12925">
        <ele>541.3</ele>
        <time>2016-07-24T07:47:05Z</time>
      </trkpt>
      <trkpt lat="42.41407" lon="0.12918">
        <ele>541.3</ele>
        <time>2016-07-24T07:47:06Z</time>
      </trkpt>
      <trkpt lat="42.41406" lon="0.12912">
        <ele>541.3</ele>
        <time>2016-07-24T07:47:07Z</time>
      </trkpt>
      <trkpt lat="42.41405" lon="0.12905">
        <ele>541.2</ele>
        <time>2016-07-24T07:47:08Z</time>
      </trkpt>
      <trkpt lat="42.41404" lon="0.12899">
        <ele>541.2</ele>
        <time>2016-07-24T07:47:09Z</time>
      </trkpt>
      <trkpt lat="42.41402" lon="0.12892">
        <ele>541.1</ele>
        <time>2016-07-24T07:47:10Z</time>
      </trkpt>
      <trkpt lat="42.41401" lon="0.12886">
        <ele>541.1</ele>
        <time>2016-07-24T07:47:11Z</time>
      </trkpt>
      <trkpt lat="42.414" lon="0.1288">
        <ele>541.1</ele>
        <time>2016-07-24T07:47:12Z</time>
      </trkpt>
      <trkpt lat="42.41399" lon="0.12875">
        <ele>541</ele>
        <time>2016-07-24T07:47:13Z</time>
      </trkpt>
      <trkpt lat="42.41397" lon="0.12871">
        <ele>541.2</ele>
        <time>2016-07-24T07:47:14Z</time>
      </trkpt>
      <trkpt lat="42.41396" lon="0.12864">
        <ele>541.4</ele>
        <time>2016-07-24T07:47:15Z</time>
      </trkpt>
      <trkpt lat="42.41394" lon="0.12858">
        <ele>541.6</ele>
        <time>2016-07-24T07:47:16Z</time>
      </trkpt>
      <trkpt lat="42.41394" lon="0.12853">
        <ele>541.6</ele>
        <time>2016-07-24T07:47:17Z</time>
      </trkpt>
      <trkpt lat="42.41395" lon="0.12848">
        <ele>541.7</ele>
        <time>2016-07-24T07:47:18Z</time>
      </trkpt>
      <trkpt lat="42.41394" lon="0.12841">
        <ele>541.8</ele>
        <time>2016-07-24T07:47:19Z</time>
      </trkpt>
      <trkpt lat="42.41392" lon="0.12834">
        <ele>542</ele>
        <time>2016-07-24T07:47:20Z</time>
      </trkpt>
      <trkpt lat="42.41391" lon="0.12827">
        <ele>542.1</ele>
        <time>2016-07-24T07:47:21Z</time>
      </trkpt>
      <trkpt lat="42.41389" lon="0.12821">
        <ele>542.2</ele>
        <time>2016-07-24T07:47:22Z</time>
      </trkpt>
      <trkpt lat="42.41387" lon="0.12814">
        <ele>542.4</ele>
        <time>2016-07-24T07:47:23Z</time>
      </trkpt>
      <trkpt lat="42.41388" lon="0.1281">
        <ele>542.4</ele>
        <time>2016-07-24T07:47:24Z</time>
      </trkpt>
      <trkpt lat="42.41387" lon="0.12803">
        <ele>542.5</ele>
        <time>2016-07-24T07:47:25Z</time>
      </trkpt>
      <trkpt lat="42.41386" lon="0.12798">
        <ele>542.6</ele>
        <time>2016-07-24T07:47:26Z</time>
      </trkpt>
      <trkpt lat="42.41385" lon="0.12792">
        <ele>542.6</ele>
        <time>2016-07-24T07:47:27Z</time>
      </trkpt>
      <trkpt lat="42.41383" lon="0.12786">
        <ele>542.7</ele>
        <time>2016-07-24T07:47:28Z</time>
      </trkpt>
      <trkpt lat="42.41384" lon="0.12782">
        <ele>542.6</ele>
        <time>2016-07-24T07:47:29Z</time>
      </trkpt>
      <trkpt lat="42.41383" lon="0.12775">
        <ele>542.6</ele>
        <time>2016-07-24T07:47:30Z</time>
      </trkpt>
      <trkpt lat="42.41381" lon="0.12768">
        <ele>542.6</ele>
        <time>2016-07-24T07:47:31Z</time>
      </trkpt>
      <trkpt lat="42.41381" lon="0.12763">
        <ele>542.5</ele>
        <time>2016-07-24T07:47:32Z</time>
      </trkpt>
      <trkpt lat="42.4138" lon="0.12757">
        <ele>542.5</ele>
        <time>2016-07-24T07:47:33Z</time>
      </trkpt>
      <trkpt lat="42.41379" lon="0.12751">
        <ele>542.4</ele>
        <time>2016-07-24T07:47:34Z</time>
      </trkpt>
      <trkpt lat="42.41378" lon="0.12745">
        <ele>542.4</ele>
        <time>2016-07-24T07:47:35Z</time>
      </trkpt>
      <trkpt lat="42.41377" lon="0.12739">
        <ele>542.3</ele>
        <time>2016-07-24T07:47:36Z</time>
      </trkpt>
      <trkpt lat="42.41375" lon="0.12734">
        <ele>542.3</ele>
        <time>2016-07-24T07:47:37Z</time>
      </trkpt>
      <trkpt lat="42.41374" lon="0.12728">
        <ele>542.3</ele>
        <time>2016-07-24T07:47:38Z</time>
      </trkpt>
      <trkpt lat="42.41372" lon="0.12722">
        <ele>542.3</ele>
        <time>2016-07-24T07:47:39Z</time>
      </trkpt>
      <trkpt lat="42.41371" lon="0.12718">
        <ele>542.3</ele>
        <time>2016-07-24T07:47:40Z</time>
      </trkpt>
      <trkpt lat="42.41369" lon="0.12711">
        <ele>542.2</ele>
        <time>2016-07-24T07:47:42Z</time>
      </trkpt>
      <trkpt lat="42.41367" lon="0.12707">
        <ele>542.3</ele>
        <time>2016-07-24T07:47:43Z</time>
      </trkpt>
      <trkpt lat="42.41365" lon="0.12702">
        <ele>542.3</ele>
        <time>2016-07-24T07:47:44Z</time>
      </trkpt>
      <trkpt lat="42.41364" lon="0.12698">
        <ele>542.3</ele>
        <time>2016-07-24T07:47:45Z</time>
      </trkpt>
      <trkpt lat="42.41363" lon="0.12694">
        <ele>542.3</ele>
        <time>2016-07-24T07:47:46Z</time>
      </trkpt>
      <trkpt lat="42.41364" lon="0.12689">
        <ele>542.3</ele>
        <time>2016-07-24T07:47:47Z</time>
      </trkpt>
      <trkpt lat="42.41366" lon="0.12683">
        <ele>542.1</ele>
        <time>2016-07-24T07:47:48Z</time>
      </trkpt>
      <trkpt lat="42.41372" lon="0.12678">
        <ele>541.8</ele>
        <time>2016-07-24T07:47:49Z</time>
      </trkpt>
      <trkpt lat="42.41375" lon="0.12673">
        <ele>541.6</ele>
        <time>2016-07-24T07:47:50Z</time>
      </trkpt>
      <trkpt lat="42.41377" lon="0.12668">
        <ele>541.5</ele>
        <time>2016-07-24T07:47:51Z</time>
      </trkpt>
      <trkpt lat="42.4138" lon="0.12663">
        <ele>541.5</ele>
        <time>2016-07-24T07:47:52Z</time>
      </trkpt>
      <trkpt lat="42.41383" lon="0.12658">
        <ele>541.5</ele>
        <time>2016-07-24T07:47:53Z</time>
      </trkpt>
      <trkpt lat="42.41387" lon="0.12654">
        <ele>541.4</ele>
        <time>2016-07-24T07:47:54Z</time>
      </trkpt>
      <trkpt lat="42.41389" lon="0.1265">
        <ele>541.4</ele>
        <time>2016-07-24T07:47:55Z</time>
      </trkpt>
      <trkpt lat="42.41393" lon="0.12645">
        <ele>541.4</ele>
        <time>2016-07-24T07:47:56Z</time>
      </trkpt>
      <trkpt lat="42.41395" lon="0.12639">
        <ele>541.4</ele>
        <time>2016-07-24T07:47:57Z</time>
      </trkpt>
      <trkpt lat="42.41398" lon="0.12635">
        <ele>541.4</ele>
        <time>2016-07-24T07:47:58Z</time>
      </trkpt>
      <trkpt lat="42.41402" lon="0.12631">
        <ele>541.4</ele>
        <time>2016-07-24T07:47:59Z</time>
      </trkpt>
      <trkpt lat="42.41406" lon="0.1263">
        <ele>541.4</ele>
        <time>2016-07-24T07:48:00Z</time>
      </trkpt>
      <trkpt lat="42.4141" lon="0.1263">
        <ele>541.5</ele>
        <time>2016-07-24T07:48:01Z</time>
      </trkpt>
      <trkpt lat="42.41413" lon="0.12634">
        <ele>541.5</ele>
        <time>2016-07-24T07:48:02Z</time>
      </trkpt>
      <trkpt lat="42.41417" lon="0.1264">
        <ele>541.6</ele>
        <time>2016-07-24T07:48:03Z</time>
      </trkpt>
      <trkpt lat="42.4142" lon="0.12647">
        <ele>541.7</ele>
        <time>2016-07-24T07:48:04Z</time>
      </trkpt>
      <trkpt lat="42.41421" lon="0.12654">
        <ele>541.7</ele>
        <time>2016-07-24T07:48:05Z</time>
      </trkpt>
      <trkpt lat="42.41422" lon="0.12661">
        <ele>541.8</ele>
        <time>2016-07-24T07:48:06Z</time>
      </trkpt>
      <trkpt lat="42.41424" lon="0.12669">
        <ele>541.8</ele>
        <time>2016-07-24T07:48:07Z</time>
      </trkpt>
      <trkpt lat="42.41425" lon="0.12677">
        <ele>541.9</ele>
        <time>2016-07-24T07:48:08Z</time>
      </trkpt>
      <trkpt lat="42.41427" lon="0.12685">
        <ele>541.9</ele>
        <time>2016-07-24T07:48:09Z</time>
      </trkpt>
      <trkpt lat="42.41429" lon="0.12692">
        <ele>541.9</ele>
        <time>2016-07-24T07:48:10Z</time>
      </trkpt>
      <trkpt lat="42.41429" lon="0.12699">
        <ele>542</ele>
        <time>2016-07-24T07:48:11Z</time>
      </trkpt>
      <trkpt lat="42.41431" lon="0.12705">
        <ele>542</ele>
        <time>2016-07-24T07:48:12Z</time>
      </trkpt>
      <trkpt lat="42.41433" lon="0.12712">
        <ele>542</ele>
        <time>2016-07-24T07:48:13Z</time>
      </trkpt>
      <trkpt lat="42.41434" lon="0.12718">
        <ele>541.9</ele>
        <time>2016-07-24T07:48:14Z</time>
      </trkpt>
      <trkpt lat="42.41436" lon="0.12724">
        <ele>541.8</ele>
        <time>2016-07-24T07:48:15Z</time>
      </trkpt>
      <trkpt lat="42.41438" lon="0.12731">
        <ele>541.7</ele>
        <time>2016-07-24T07:48:16Z</time>
      </trkpt>
      <trkpt lat="42.41439" lon="0.12738">
        <ele>541.5</ele>
        <time>2016-07-24T07:48:17Z</time>
      </trkpt>
      <trkpt lat="42.41443" lon="0.12746">
        <ele>541.3</ele>
        <time>2016-07-24T07:48:18Z</time>
      </trkpt>
      <trkpt lat="42.41448" lon="0.12755">
        <ele>541.1</ele>
        <time>2016-07-24T07:48:19Z</time>
      </trkpt>
      <trkpt lat="42.41451" lon="0.12761">
        <ele>540.9</ele>
        <time>2016-07-24T07:48:20Z</time>
      </trkpt>
      <trkpt lat="42.41457" lon="0.12768">
        <ele>540.6</ele>
        <time>2016-07-24T07:48:21Z</time>
      </trkpt>
      <trkpt lat="42.41462" lon="0.12775">
        <ele>540.3</ele>
        <time>2016-07-24T07:48:22Z</time>
      </trkpt>
      <trkpt lat="42.41468" lon="0.12778">
        <ele>540.1</ele>
        <time>2016-07-24T07:48:23Z</time>
      </trkpt>
      <trkpt lat="42.41473" lon="0.1278">
        <ele>540</ele>
        <time>2016-07-24T07:48:24Z</time>
      </trkpt>
      <trkpt lat="42.4148" lon="0.12779">
        <ele>539.9</ele>
        <time>2016-07-24T07:48:25Z</time>
      </trkpt>
      <trkpt lat="42.41487" lon="0.1278">
        <ele>539.7</ele>
        <time>2016-07-24T07:48:26Z</time>
      </trkpt>
      <trkpt lat="42.41493" lon="0.1278">
        <ele>539.6</ele>
        <time>2016-07-24T07:48:27Z</time>
      </trkpt>
      <trkpt lat="42.41499" lon="0.12778">
        <ele>539.5</ele>
        <time>2016-07-24T07:48:28Z</time>
      </trkpt>
      <trkpt lat="42.41504" lon="0.12779">
        <ele>539.4</ele>
        <time>2016-07-24T07:48:29Z</time>
      </trkpt>
      <trkpt lat="42.4151" lon="0.1278">
        <ele>539.2</ele>
        <time>2016-07-24T07:48:30Z</time>
      </trkpt>
      <trkpt lat="42.41516" lon="0.12782">
        <ele>539</ele>
        <time>2016-07-24T07:48:31Z</time>
      </trkpt>
      <trkpt lat="42.41521" lon="0.12784">
        <ele>538.8</ele>
        <time>2016-07-24T07:48:32Z</time>
      </trkpt>
      <trkpt lat="42.41526" lon="0.12788">
        <ele>538.5</ele>
        <time>2016-07-24T07:48:33Z</time>
      </trkpt>
      <trkpt lat="42.41532" lon="0.12793">
        <ele>538.2</ele>
        <time>2016-07-24T07:48:34Z</time>
      </trkpt>
      <trkpt lat="42.41537" lon="0.12798">
        <ele>538.1</ele>
        <time>2016-07-24T07:48:35Z</time>
      </trkpt>
      <trkpt lat="42.41542" lon="0.12804">
        <ele>538</ele>
        <time>2016-07-24T07:48:36Z</time>
      </trkpt>
      <trkpt lat="42.41546" lon="0.1281">
        <ele>538.1</ele>
        <time>2016-07-24T07:48:37Z</time>
      </trkpt>
      <trkpt lat="42.41551" lon="0.12816">
        <ele>538.2</ele>
        <time>2016-07-24T07:48:38Z</time>
      </trkpt>
      <trkpt lat="42.41556" lon="0.12822">
        <ele>538.2</ele>
        <time>2016-07-24T07:48:39Z</time>
      </trkpt>
      <trkpt lat="42.41561" lon="0.12826">
        <ele>538.3</ele>
        <time>2016-07-24T07:48:40Z</time>
      </trkpt>
      <trkpt lat="42.41566" lon="0.12832">
        <ele>538.3</ele>
        <time>2016-07-24T07:48:41Z</time>
      </trkpt>
      <trkpt lat="42.41572" lon="0.12837">
        <ele>538.3</ele>
        <time>2016-07-24T07:48:42Z</time>
      </trkpt>
      <trkpt lat="42.41577" lon="0.1284">
        <ele>538.4</ele>
        <time>2016-07-24T07:48:43Z</time>
      </trkpt>
      <trkpt lat="42.41583" lon="0.12843">
        <ele>538.4</ele>
        <time>2016-07-24T07:48:44Z</time>
      </trkpt>
      <trkpt lat="42.41588" lon="0.12845">
        <ele>538.4</ele>
        <time>2016-07-24T07:48:45Z</time>
      </trkpt>
      <trkpt lat="42.41593" lon="0.12849">
        <ele>538.4</ele>
        <time>2016-07-24T07:48:46Z</time>
      </trkpt>
      <trkpt lat="42.416" lon="0.1285">
        <ele>538.4</ele>
        <time>2016-07-24T07:48:47Z</time>
      </trkpt>
      <trkpt lat="42.41605" lon="0.12852">
        <ele>538.4</ele>
        <time>2016-07-24T07:48:48Z</time>
      </trkpt>
      <trkpt lat="42.4161" lon="0.12856">
        <ele>538.4</ele>
        <time>2016-07-24T07:48:49Z</time>
      </trkpt>
      <trkpt lat="42.41615" lon="0.12857">
        <ele>538.4</ele>
        <time>2016-07-24T07:48:50Z</time>
      </trkpt>
      <trkpt lat="42.41622" lon="0.12858">
        <ele>538.4</ele>
        <time>2016-07-24T07:48:51Z</time>
      </trkpt>
      <trkpt lat="42.41628" lon="0.12859">
        <ele>538.4</ele>
        <time>2016-07-24T07:48:52Z</time>
      </trkpt>
      <trkpt lat="42.41634" lon="0.12861">
        <ele>538.4</ele>
        <time>2016-07-24T07:48:53Z</time>
      </trkpt>
      <trkpt lat="42.4164" lon="0.12861">
        <ele>538.4</ele>
        <time>2016-07-24T07:48:54Z</time>
      </trkpt>
      <trkpt lat="42.41645" lon="0.12862">
        <ele>538.5</ele>
        <time>2016-07-24T07:48:55Z</time>
      </trkpt>
      <trkpt lat="42.4165" lon="0.12865">
        <ele>538.5</ele>
        <time>2016-07-24T07:48:56Z</time>
      </trkpt>
      <trkpt lat="42.41655" lon="0.12867">
        <ele>538.5</ele>
        <time>2016-07-24T07:48:57Z</time>
      </trkpt>
      <trkpt lat="42.41661" lon="0.1287">
        <ele>538.5</ele>
        <time>2016-07-24T07:48:58Z</time>
      </trkpt>
      <trkpt lat="42.41666" lon="0.12872">
        <ele>538.5</ele>
        <time>2016-07-24T07:48:59Z</time>
      </trkpt>
      <trkpt lat="42.41671" lon="0.12875">
        <ele>538.6</ele>
        <time>2016-07-24T07:49:00Z</time>
      </trkpt>
      <trkpt lat="42.41675" lon="0.12878">
        <ele>538.5</ele>
        <time>2016-07-24T07:49:01Z</time>
      </trkpt>
      <trkpt lat="42.4168" lon="0.1288">
        <ele>538.5</ele>
        <time>2016-07-24T07:49:02Z</time>
      </trkpt>
      <trkpt lat="42.41684" lon="0.12883">
        <ele>538.5</ele>
        <time>2016-07-24T07:49:03Z</time>
      </trkpt>
      <trkpt lat="42.4169" lon="0.12883">
        <ele>538.5</ele>
        <time>2016-07-24T07:49:04Z</time>
      </trkpt>
      <trkpt lat="42.41697" lon="0.12883">
        <ele>538.6</ele>
        <time>2016-07-24T07:49:05Z</time>
      </trkpt>
      <trkpt lat="42.41702" lon="0.12881">
        <ele>538.7</ele>
        <time>2016-07-24T07:49:06Z</time>
      </trkpt>
      <trkpt lat="42.41705" lon="0.12877">
        <ele>538.9</ele>
        <time>2016-07-24T07:49:07Z</time>
      </trkpt>
      <trkpt lat="42.41708" lon="0.12872">
        <ele>539</ele>
        <time>2016-07-24T07:49:08Z</time>
      </trkpt>
      <trkpt lat="42.41711" lon="0.12866">
        <ele>538.9</ele>
        <time>2016-07-24T07:49:09Z</time>
      </trkpt>
      <trkpt lat="42.41714" lon="0.12859">
        <ele>538.8</ele>
        <time>2016-07-24T07:49:10Z</time>
      </trkpt>
      <trkpt lat="42.41716" lon="0.12853">
        <ele>538.8</ele>
        <time>2016-07-24T07:49:11Z</time>
      </trkpt>
      <trkpt lat="42.41718" lon="0.12847">
        <ele>538.7</ele>
        <time>2016-07-24T07:49:12Z</time>
      </trkpt>
      <trkpt lat="42.41719" lon="0.1284">
        <ele>538.7</ele>
        <time>2016-07-24T07:49:13Z</time>
      </trkpt>
      <trkpt lat="42.41722" lon="0.12834">
        <ele>538.7</ele>
        <time>2016-07-24T07:49:14Z</time>
      </trkpt>
      <trkpt lat="42.41723" lon="0.12825">
        <ele>538.7</ele>
        <time>2016-07-24T07:49:15Z</time>
      </trkpt>
      <trkpt lat="42.41725" lon="0.12818">
        <ele>538.7</ele>
        <time>2016-07-24T07:49:16Z</time>
      </trkpt>
      <trkpt lat="42.41726" lon="0.12812">
        <ele>538.7</ele>
        <time>2016-07-24T07:49:17Z</time>
      </trkpt>
      <trkpt lat="42.41728" lon="0.12805">
        <ele>538.7</ele>
        <time>2016-07-24T07:49:18Z</time>
      </trkpt>
      <trkpt lat="42.41731" lon="0.12797">
        <ele>538.7</ele>
        <time>2016-07-24T07:49:19Z</time>
      </trkpt>
      <trkpt lat="42.41734" lon="0.12791">
        <ele>538.7</ele>
        <time>2016-07-24T07:49:20Z</time>
      </trkpt>
      <trkpt lat="42.41737" lon="0.12786">
        <ele>538.6</ele>
        <time>2016-07-24T07:49:21Z</time>
      </trkpt>
      <trkpt lat="42.41739" lon="0.1278">
        <ele>538.5</ele>
        <time>2016-07-24T07:49:22Z</time>
      </trkpt>
      <trkpt lat="42.41743" lon="0.12775">
        <ele>538.3</ele>
        <time>2016-07-24T07:49:23Z</time>
      </trkpt>
      <trkpt lat="42.41748" lon="0.12771">
        <ele>538.3</ele>
        <time>2016-07-24T07:49:24Z</time>
      </trkpt>
      <trkpt lat="42.41752" lon="0.12765">
        <ele>538.2</ele>
        <time>2016-07-24T07:49:25Z</time>
      </trkpt>
      <trkpt lat="42.41754" lon="0.12759">
        <ele>538.1</ele>
        <time>2016-07-24T07:49:26Z</time>
      </trkpt>
      <trkpt lat="42.41758" lon="0.12755">
        <ele>538</ele>
        <time>2016-07-24T07:49:27Z</time>
      </trkpt>
      <trkpt lat="42.41762" lon="0.1275">
        <ele>538</ele>
        <time>2016-07-24T07:49:28Z</time>
      </trkpt>
      <trkpt lat="42.41765" lon="0.12747">
        <ele>538</ele>
        <time>2016-07-24T07:49:29Z</time>
      </trkpt>
      <trkpt lat="42.41768" lon="0.12742">
        <ele>537.9</ele>
        <time>2016-07-24T07:49:30Z</time>
      </trkpt>
      <trkpt lat="42.41774" lon="0.12737">
        <ele>537.9</ele>
        <time>2016-07-24T07:49:31Z</time>
      </trkpt>
      <trkpt lat="42.41779" lon="0.12733">
        <ele>537.9</ele>
        <time>2016-07-24T07:49:32Z</time>
      </trkpt>
      <trkpt lat="42.41784" lon="0.12728">
        <ele>538</ele>
        <time>2016-07-24T07:49:33Z</time>
      </trkpt>
      <trkpt lat="42.41788" lon="0.12725">
        <ele>538</ele>
        <time>2016-07-24T07:49:34Z</time>
      </trkpt>
      <trkpt lat="42.41793" lon="0.12721">
        <ele>538</ele>
        <time>2016-07-24T07:49:35Z</time>
      </trkpt>
      <trkpt lat="42.41797" lon="0.12717">
        <ele>538</ele>
        <time>2016-07-24T07:49:36Z</time>
      </trkpt>
      <trkpt lat="42.41802" lon="0.12713">
        <ele>538.1</ele>
        <time>2016-07-24T07:49:37Z</time>
      </trkpt>
      <trkpt lat="42.41805" lon="0.12707">
        <ele>538.2</ele>
        <time>2016-07-24T07:49:38Z</time>
      </trkpt>
      <trkpt lat="42.41809" lon="0.12702">
        <ele>538.2</ele>
        <time>2016-07-24T07:49:39Z</time>
      </trkpt>
      <trkpt lat="42.41811" lon="0.12697">
        <ele>538.2</ele>
        <time>2016-07-24T07:49:40Z</time>
      </trkpt>
      <trkpt lat="42.41813" lon="0.12691">
        <ele>538.2</ele>
        <time>2016-07-24T07:49:41Z</time>
      </trkpt>
      <trkpt lat="42.41816" lon="0.12686">
        <ele>538.2</ele>
        <time>2016-07-24T07:49:42Z</time>
      </trkpt>
      <trkpt lat="42.41818" lon="0.12681">
        <ele>538.2</ele>
        <time>2016-07-24T07:49:43Z</time>
      </trkpt>
      <trkpt lat="42.41819" lon="0.12675">
        <ele>538.2</ele>
        <time>2016-07-24T07:49:44Z</time>
      </trkpt>
      <trkpt lat="42.41822" lon="0.12671">
        <ele>538.2</ele>
        <time>2016-07-24T07:49:45Z</time>
      </trkpt>
      <trkpt lat="42.41825" lon="0.12666">
        <ele>538.2</ele>
        <time>2016-07-24T07:49:46Z</time>
      </trkpt>
      <trkpt lat="42.41828" lon="0.1266">
        <ele>538.2</ele>
        <time>2016-07-24T07:49:47Z</time>
      </trkpt>
      <trkpt lat="42.41829" lon="0.12655">
        <ele>538.2</ele>
        <time>2016-07-24T07:49:48Z</time>
      </trkpt>
      <trkpt lat="42.41832" lon="0.1265">
        <ele>538.1</ele>
        <time>2016-07-24T07:49:49Z</time>
      </trkpt>
      <trkpt lat="42.41836" lon="0.12647">
        <ele>538.1</ele>
        <time>2016-07-24T07:49:50Z</time>
      </trkpt>
      <trkpt lat="42.41839" lon="0.12643">
        <ele>538.1</ele>
        <time>2016-07-24T07:49:51Z</time>
      </trkpt>
      <trkpt lat="42.41841" lon="0.12639">
        <ele>538.1</ele>
        <time>2016-07-24T07:49:52Z</time>
      </trkpt>
      <trkpt lat="42.41844" lon="0.12635">
        <ele>538.1</ele>
        <time>2016-07-24T07:49:53Z</time>
      </trkpt>
      <trkpt lat="42.41848" lon="0.1263">
        <ele>538</ele>
        <time>2016-07-24T07:49:54Z</time>
      </trkpt>
      <trkpt lat="42.41852" lon="0.12627">
        <ele>538</ele>
        <time>2016-07-24T07:49:55Z</time>
      </trkpt>
      <trkpt lat="42.41857" lon="0.12624">
        <ele>538</ele>
        <time>2016-07-24T07:49:56Z</time>
      </trkpt>
      <trkpt lat="42.41861" lon="0.1262">
        <ele>538.1</ele>
        <time>2016-07-24T07:49:57Z</time>
      </trkpt>
      <trkpt lat="42.41865" lon="0.12617">
        <ele>538.1</ele>
        <time>2016-07-24T07:49:58Z</time>
      </trkpt>
      <trkpt lat="42.41869" lon="0.12612">
        <ele>538.2</ele>
        <time>2016-07-24T07:49:59Z</time>
      </trkpt>
      <trkpt lat="42.41874" lon="0.12609">
        <ele>538.2</ele>
        <time>2016-07-24T07:50:00Z</time>
      </trkpt>
      <trkpt lat="42.41878" lon="0.12605">
        <ele>538.2</ele>
        <time>2016-07-24T07:50:01Z</time>
      </trkpt>
      <trkpt lat="42.4188" lon="0.126">
        <ele>538.3</ele>
        <time>2016-07-24T07:50:02Z</time>
      </trkpt>
      <trkpt lat="42.41883" lon="0.12597">
        <ele>538.3</ele>
        <time>2016-07-24T07:50:03Z</time>
      </trkpt>
      <trkpt lat="42.41886" lon="0.12593">
        <ele>538.3</ele>
        <time>2016-07-24T07:50:04Z</time>
      </trkpt>
      <trkpt lat="42.4189" lon="0.12591">
        <ele>538.3</ele>
        <time>2016-07-24T07:50:05Z</time>
      </trkpt>
      <trkpt lat="42.41894" lon="0.1259">
        <ele>538.2</ele>
        <time>2016-07-24T07:50:06Z</time>
      </trkpt>
      <trkpt lat="42.41899" lon="0.12591">
        <ele>538.2</ele>
        <time>2016-07-24T07:50:07Z</time>
      </trkpt>
      <trkpt lat="42.41904" lon="0.12593">
        <ele>538.1</ele>
        <time>2016-07-24T07:50:08Z</time>
      </trkpt>
      <trkpt lat="42.41908" lon="0.12594">
        <ele>538.1</ele>
        <time>2016-07-24T07:50:09Z</time>
      </trkpt>
      <trkpt lat="42.41913" lon="0.12593">
        <ele>538</ele>
        <time>2016-07-24T07:50:10Z</time>
      </trkpt>
      <trkpt lat="42.41917" lon="0.12592">
        <ele>538</ele>
        <time>2016-07-24T07:50:11Z</time>
      </trkpt>
      <trkpt lat="42.41921" lon="0.12589">
        <ele>538</ele>
        <time>2016-07-24T07:50:12Z</time>
      </trkpt>
      <trkpt lat="42.41924" lon="0.12584">
        <ele>537.9</ele>
        <time>2016-07-24T07:50:13Z</time>
      </trkpt>
      <trkpt lat="42.41927" lon="0.12579">
        <ele>537.9</ele>
        <time>2016-07-24T07:50:14Z</time>
      </trkpt>
      <trkpt lat="42.4193" lon="0.12573">
        <ele>537.8</ele>
        <time>2016-07-24T07:50:15Z</time>
      </trkpt>
      <trkpt lat="42.41933" lon="0.12568">
        <ele>537.7</ele>
        <time>2016-07-24T07:50:16Z</time>
      </trkpt>
      <trkpt lat="42.41935" lon="0.12561">
        <ele>537.7</ele>
        <time>2016-07-24T07:50:17Z</time>
      </trkpt>
      <trkpt lat="42.41938" lon="0.12556">
        <ele>537.6</ele>
        <time>2016-07-24T07:50:18Z</time>
      </trkpt>
      <trkpt lat="42.41941" lon="0.12551">
        <ele>537.5</ele>
        <time>2016-07-24T07:50:19Z</time>
      </trkpt>
      <trkpt lat="42.41943" lon="0.12546">
        <ele>537.4</ele>
        <time>2016-07-24T07:50:20Z</time>
      </trkpt>
      <trkpt lat="42.41947" lon="0.12539">
        <ele>537.4</ele>
        <time>2016-07-24T07:50:21Z</time>
      </trkpt>
      <trkpt lat="42.41949" lon="0.12534">
        <ele>537.5</ele>
        <time>2016-07-24T07:50:22Z</time>
      </trkpt>
      <trkpt lat="42.41952" lon="0.1253">
        <ele>537.6</ele>
        <time>2016-07-24T07:50:23Z</time>
      </trkpt>
      <trkpt lat="42.41957" lon="0.12523">
        <ele>537.7</ele>
        <time>2016-07-24T07:50:24Z</time>
      </trkpt>
      <trkpt lat="42.41962" lon="0.12518">
        <ele>537.8</ele>
        <time>2016-07-24T07:50:25Z</time>
      </trkpt>
      <trkpt lat="42.41965" lon="0.12514">
        <ele>537.9</ele>
        <time>2016-07-24T07:50:26Z</time>
      </trkpt>
      <trkpt lat="42.41968" lon="0.12509">
        <ele>538</ele>
        <time>2016-07-24T07:50:27Z</time>
      </trkpt>
      <trkpt lat="42.41972" lon="0.12503">
        <ele>538.2</ele>
        <time>2016-07-24T07:50:28Z</time>
      </trkpt>
      <trkpt lat="42.41974" lon="0.12499">
        <ele>538.2</ele>
        <time>2016-07-24T07:50:29Z</time>
      </trkpt>
      <trkpt lat="42.41977" lon="0.12494">
        <ele>538.3</ele>
        <time>2016-07-24T07:50:30Z</time>
      </trkpt>
      <trkpt lat="42.4198" lon="0.12489">
        <ele>538.4</ele>
        <time>2016-07-24T07:50:31Z</time>
      </trkpt>
      <trkpt lat="42.41983" lon="0.12483">
        <ele>538.5</ele>
        <time>2016-07-24T07:50:32Z</time>
      </trkpt>
      <trkpt lat="42.41986" lon="0.12478">
        <ele>538.5</ele>
        <time>2016-07-24T07:50:33Z</time>
      </trkpt>
      <trkpt lat="42.41989" lon="0.12473">
        <ele>538.6</ele>
        <time>2016-07-24T07:50:34Z</time>
      </trkpt>
      <trkpt lat="42.41992" lon="0.12469">
        <ele>538.6</ele>
        <time>2016-07-24T07:50:35Z</time>
      </trkpt>
      <trkpt lat="42.41994" lon="0.12462">
        <ele>538.6</ele>
        <time>2016-07-24T07:50:36Z</time>
      </trkpt>
      <trkpt lat="42.41997" lon="0.12458">
        <ele>538.6</ele>
        <time>2016-07-24T07:50:37Z</time>
      </trkpt>
      <trkpt lat="42.41998" lon="0.12453">
        <ele>538.7</ele>
        <time>2016-07-24T07:50:38Z</time>
      </trkpt>
      <trkpt lat="42.42" lon="0.12447">
        <ele>538.8</ele>
        <time>2016-07-24T07:50:39Z</time>
      </trkpt>
      <trkpt lat="42.42002" lon="0.12442">
        <ele>538.8</ele>
        <time>2016-07-24T07:50:40Z</time>
      </trkpt>
      <trkpt lat="42.42004" lon="0.12437">
        <ele>538.9</ele>
        <time>2016-07-24T07:50:41Z</time>
      </trkpt>
      <trkpt lat="42.42008" lon="0.12434">
        <ele>538.8</ele>
        <time>2016-07-24T07:50:42Z</time>
      </trkpt>
      <trkpt lat="42.42011" lon="0.12428">
        <ele>538.8</ele>
        <time>2016-07-24T07:50:43Z</time>
      </trkpt>
      <trkpt lat="42.42014" lon="0.12423">
        <ele>538.9</ele>
        <time>2016-07-24T07:50:44Z</time>
      </trkpt>
      <trkpt lat="42.42017" lon="0.12418">
        <ele>538.9</ele>
        <time>2016-07-24T07:50:45Z</time>
      </trkpt>
      <trkpt lat="42.4202" lon="0.12413">
        <ele>538.9</ele>
        <time>2016-07-24T07:50:46Z</time>
      </trkpt>
      <trkpt lat="42.42023" lon="0.12408">
        <ele>538.9</ele>
        <time>2016-07-24T07:50:47Z</time>
      </trkpt>
      <trkpt lat="42.42027" lon="0.12403">
        <ele>538.9</ele>
        <time>2016-07-24T07:50:48Z</time>
      </trkpt>
      <trkpt lat="42.4203" lon="0.12398">
        <ele>538.9</ele>
        <time>2016-07-24T07:50:49Z</time>
      </trkpt>
      <trkpt lat="42.42033" lon="0.12392">
        <ele>538.9</ele>
        <time>2016-07-24T07:50:50Z</time>
      </trkpt>
      <trkpt lat="42.42036" lon="0.12387">
        <ele>538.9</ele>
        <time>2016-07-24T07:50:51Z</time>
      </trkpt>
      <trkpt lat="42.4204" lon="0.12382">
        <ele>538.9</ele>
        <time>2016-07-24T07:50:52Z</time>
      </trkpt>
      <trkpt lat="42.42041" lon="0.12375">
        <ele>539</ele>
        <time>2016-07-24T07:50:53Z</time>
      </trkpt>
      <trkpt lat="42.42043" lon="0.1237">
        <ele>539.2</ele>
        <time>2016-07-24T07:50:54Z</time>
      </trkpt>
      <trkpt lat="42.42046" lon="0.12365">
        <ele>539.3</ele>
        <time>2016-07-24T07:50:55Z</time>
      </trkpt>
      <trkpt lat="42.42049" lon="0.1236">
        <ele>539.5</ele>
        <time>2016-07-24T07:50:56Z</time>
      </trkpt>
      <trkpt lat="42.42052" lon="0.12355">
        <ele>539.7</ele>
        <time>2016-07-24T07:50:57Z</time>
      </trkpt>
      <trkpt lat="42.42056" lon="0.12349">
        <ele>539.9</ele>
        <time>2016-07-24T07:50:58Z</time>
      </trkpt>
      <trkpt lat="42.42058" lon="0.12344">
        <ele>540</ele>
        <time>2016-07-24T07:50:59Z</time>
      </trkpt>
      <trkpt lat="42.42061" lon="0.1234">
        <ele>540.2</ele>
        <time>2016-07-24T07:51:00Z</time>
      </trkpt>
      <trkpt lat="42.42063" lon="0.12334">
        <ele>540.3</ele>
        <time>2016-07-24T07:51:01Z</time>
      </trkpt>
      <trkpt lat="42.42066" lon="0.12329">
        <ele>540.5</ele>
        <time>2016-07-24T07:51:02Z</time>
      </trkpt>
      <trkpt lat="42.42069" lon="0.12324">
        <ele>540.6</ele>
        <time>2016-07-24T07:51:03Z</time>
      </trkpt>
      <trkpt lat="42.42071" lon="0.12319">
        <ele>540.8</ele>
        <time>2016-07-24T07:51:04Z</time>
      </trkpt>
      <trkpt lat="42.42075" lon="0.12314">
        <ele>540.9</ele>
        <time>2016-07-24T07:51:05Z</time>
      </trkpt>
      <trkpt lat="42.42078" lon="0.12309">
        <ele>541</ele>
        <time>2016-07-24T07:51:06Z</time>
      </trkpt>
      <trkpt lat="42.42081" lon="0.12304">
        <ele>541.2</ele>
        <time>2016-07-24T07:51:07Z</time>
      </trkpt>
      <trkpt lat="42.42084" lon="0.12299">
        <ele>541.3</ele>
        <time>2016-07-24T07:51:08Z</time>
      </trkpt>
      <trkpt lat="42.42087" lon="0.12294">
        <ele>541.4</ele>
        <time>2016-07-24T07:51:09Z</time>
      </trkpt>
      <trkpt lat="42.4209" lon="0.12288">
        <ele>541.5</ele>
        <time>2016-07-24T07:51:10Z</time>
      </trkpt>
      <trkpt lat="42.42093" lon="0.12282">
        <ele>541.6</ele>
        <time>2016-07-24T07:51:11Z</time>
      </trkpt>
      <trkpt lat="42.42097" lon="0.12277">
        <ele>541.6</ele>
        <time>2016-07-24T07:51:12Z</time>
      </trkpt>
      <trkpt lat="42.421" lon="0.12274">
        <ele>541.7</ele>
        <time>2016-07-24T07:51:13Z</time>
      </trkpt>
      <trkpt lat="42.42102" lon="0.12271">
        <ele>541.7</ele>
        <time>2016-07-24T07:51:14Z</time>
      </trkpt>
      <trkpt lat="42.42105" lon="0.12266">
        <ele>541.8</ele>
        <time>2016-07-24T07:51:15Z</time>
      </trkpt>
      <trkpt lat="42.42107" lon="0.12261">
        <ele>541.9</ele>
        <time>2016-07-24T07:51:16Z</time>
      </trkpt>
      <trkpt lat="42.4211" lon="0.12256">
        <ele>542</ele>
        <time>2016-07-24T07:51:17Z</time>
      </trkpt>
      <trkpt lat="42.42112" lon="0.12252">
        <ele>542</ele>
        <time>2016-07-24T07:51:18Z</time>
      </trkpt>
      <trkpt lat="42.42114" lon="0.12247">
        <ele>542.1</ele>
        <time>2016-07-24T07:51:19Z</time>
      </trkpt>
      <trkpt lat="42.42116" lon="0.12243">
        <ele>542.2</ele>
        <time>2016-07-24T07:51:20Z</time>
      </trkpt>
      <trkpt lat="42.4212" lon="0.12239">
        <ele>542.3</ele>
        <time>2016-07-24T07:51:21Z</time>
      </trkpt>
      <trkpt lat="42.42124" lon="0.12234">
        <ele>542.4</ele>
        <time>2016-07-24T07:51:22Z</time>
      </trkpt>
      <trkpt lat="42.42128" lon="0.12228">
        <ele>542.5</ele>
        <time>2016-07-24T07:51:23Z</time>
      </trkpt>
      <trkpt lat="42.4213" lon="0.12222">
        <ele>542.7</ele>
        <time>2016-07-24T07:51:24Z</time>
      </trkpt>
      <trkpt lat="42.42133" lon="0.12215">
        <ele>542.8</ele>
        <time>2016-07-24T07:51:25Z</time>
      </trkpt>
      <trkpt lat="42.42136" lon="0.1221">
        <ele>543</ele>
        <time>2016-07-24T07:51:26Z</time>
      </trkpt>
      <trkpt lat="42.42138" lon="0.12205">
        <ele>543</ele>
        <time>2016-07-24T07:51:27Z</time>
      </trkpt>
      <trkpt lat="42.42142" lon="0.122">
        <ele>542.9</ele>
        <time>2016-07-24T07:51:28Z</time>
      </trkpt>
      <trkpt lat="42.42146" lon="0.12194">
        <ele>542.9</ele>
        <time>2016-07-24T07:51:29Z</time>
      </trkpt>
      <trkpt lat="42.4215" lon="0.1219">
        <ele>542.8</ele>
        <time>2016-07-24T07:51:30Z</time>
      </trkpt>
      <trkpt lat="42.42153" lon="0.12184">
        <ele>542.8</ele>
        <time>2016-07-24T07:51:31Z</time>
      </trkpt>
      <trkpt lat="42.42157" lon="0.12179">
        <ele>542.8</ele>
        <time>2016-07-24T07:51:32Z</time>
      </trkpt>
      <trkpt lat="42.42158" lon="0.12172">
        <ele>542.7</ele>
        <time>2016-07-24T07:51:33Z</time>
      </trkpt>
      <trkpt lat="42.42162" lon="0.12168">
        <ele>542.7</ele>
        <time>2016-07-24T07:51:34Z</time>
      </trkpt>
      <trkpt lat="42.42165" lon="0.12163">
        <ele>542.7</ele>
        <time>2016-07-24T07:51:35Z</time>
      </trkpt>
      <trkpt lat="42.42168" lon="0.12159">
        <ele>542.7</ele>
        <time>2016-07-24T07:51:36Z</time>
      </trkpt>
      <trkpt lat="42.42172" lon="0.12154">
        <ele>542.7</ele>
        <time>2016-07-24T07:51:37Z</time>
      </trkpt>
      <trkpt lat="42.42175" lon="0.12148">
        <ele>542.7</ele>
        <time>2016-07-24T07:51:38Z</time>
      </trkpt>
      <trkpt lat="42.42177" lon="0.12143">
        <ele>542.7</ele>
        <time>2016-07-24T07:51:39Z</time>
      </trkpt>
      <trkpt lat="42.42179" lon="0.12138">
        <ele>542.7</ele>
        <time>2016-07-24T07:51:40Z</time>
      </trkpt>
      <trkpt lat="42.42182" lon="0.12133">
        <ele>542.7</ele>
        <time>2016-07-24T07:51:41Z</time>
      </trkpt>
      <trkpt lat="42.42185" lon="0.12127">
        <ele>542.7</ele>
        <time>2016-07-24T07:51:42Z</time>
      </trkpt>
      <trkpt lat="42.42188" lon="0.12121">
        <ele>542.8</ele>
        <time>2016-07-24T07:51:43Z</time>
      </trkpt>
      <trkpt lat="42.4219" lon="0.12117">
        <ele>542.9</ele>
        <time>2016-07-24T07:51:44Z</time>
      </trkpt>
      <trkpt lat="42.42192" lon="0.12111">
        <ele>543</ele>
        <time>2016-07-24T07:51:45Z</time>
      </trkpt>
      <trkpt lat="42.42195" lon="0.12105">
        <ele>543.2</ele>
        <time>2016-07-24T07:51:46Z</time>
      </trkpt>
      <trkpt lat="42.42198" lon="0.121">
        <ele>543.3</ele>
        <time>2016-07-24T07:51:47Z</time>
      </trkpt>
      <trkpt lat="42.422" lon="0.12095">
        <ele>543.3</ele>
        <time>2016-07-24T07:51:48Z</time>
      </trkpt>
      <trkpt lat="42.42203" lon="0.1209">
        <ele>543.4</ele>
        <time>2016-07-24T07:51:49Z</time>
      </trkpt>
      <trkpt lat="42.42206" lon="0.12084">
        <ele>543.5</ele>
        <time>2016-07-24T07:51:50Z</time>
      </trkpt>
      <trkpt lat="42.4221" lon="0.12079">
        <ele>543.5</ele>
        <time>2016-07-24T07:51:51Z</time>
      </trkpt>
      <trkpt lat="42.42213" lon="0.12075">
        <ele>543.6</ele>
        <time>2016-07-24T07:51:52Z</time>
      </trkpt>
      <trkpt lat="42.42217" lon="0.1207">
        <ele>543.6</ele>
        <time>2016-07-24T07:51:53Z</time>
      </trkpt>
      <trkpt lat="42.4222" lon="0.12064">
        <ele>543.7</ele>
        <time>2016-07-24T07:51:54Z</time>
      </trkpt>
      <trkpt lat="42.42224" lon="0.1206">
        <ele>543.7</ele>
        <time>2016-07-24T07:51:55Z</time>
      </trkpt>
      <trkpt lat="42.42226" lon="0.12054">
        <ele>543.8</ele>
        <time>2016-07-24T07:51:56Z</time>
      </trkpt>
      <trkpt lat="42.42229" lon="0.12049">
        <ele>543.9</ele>
        <time>2016-07-24T07:51:57Z</time>
      </trkpt>
      <trkpt lat="42.42232" lon="0.12044">
        <ele>544</ele>
        <time>2016-07-24T07:51:58Z</time>
      </trkpt>
      <trkpt lat="42.42234" lon="0.12038">
        <ele>544.2</ele>
        <time>2016-07-24T07:51:59Z</time>
      </trkpt>
      <trkpt lat="42.42238" lon="0.12033">
        <ele>544.4</ele>
        <time>2016-07-24T07:52:00Z</time>
      </trkpt>
      <trkpt lat="42.42241" lon="0.12027">
        <ele>544.7</ele>
        <time>2016-07-24T07:52:01Z</time>
      </trkpt>
      <trkpt lat="42.42243" lon="0.12021">
        <ele>544.9</ele>
        <time>2016-07-24T07:52:02Z</time>
      </trkpt>
      <trkpt lat="42.42247" lon="0.12016">
        <ele>545.1</ele>
        <time>2016-07-24T07:52:03Z</time>
      </trkpt>
      <trkpt lat="42.42249" lon="0.1201">
        <ele>545.3</ele>
        <time>2016-07-24T07:52:04Z</time>
      </trkpt>
      <trkpt lat="42.42251" lon="0.12006">
        <ele>545.5</ele>
        <time>2016-07-24T07:52:05Z</time>
      </trkpt>
      <trkpt lat="42.42253" lon="0.12002">
        <ele>545.6</ele>
        <time>2016-07-24T07:52:06Z</time>
      </trkpt>
      <trkpt lat="42.42256" lon="0.11997">
        <ele>545.8</ele>
        <time>2016-07-24T07:52:07Z</time>
      </trkpt>
      <trkpt lat="42.42257" lon="0.11991">
        <ele>546</ele>
        <time>2016-07-24T07:52:08Z</time>
      </trkpt>
      <trkpt lat="42.4226" lon="0.11986">
        <ele>546.1</ele>
        <time>2016-07-24T07:52:09Z</time>
      </trkpt>
      <trkpt lat="42.42262" lon="0.11981">
        <ele>546.2</ele>
        <time>2016-07-24T07:52:10Z</time>
      </trkpt>
      <trkpt lat="42.42267" lon="0.11977">
        <ele>546.2</ele>
        <time>2016-07-24T07:52:11Z</time>
      </trkpt>
      <trkpt lat="42.4227" lon="0.11972">
        <ele>546.3</ele>
        <time>2016-07-24T07:52:12Z</time>
      </trkpt>
      <trkpt lat="42.42273" lon="0.11966">
        <ele>546.4</ele>
        <time>2016-07-24T07:52:13Z</time>
      </trkpt>
      <trkpt lat="42.42277" lon="0.11961">
        <ele>546.4</ele>
        <time>2016-07-24T07:52:14Z</time>
      </trkpt>
      <trkpt lat="42.42281" lon="0.11955">
        <ele>546.4</ele>
        <time>2016-07-24T07:52:15Z</time>
      </trkpt>
      <trkpt lat="42.42284" lon="0.1195">
        <ele>546.4</ele>
        <time>2016-07-24T07:52:16Z</time>
      </trkpt>
      <trkpt lat="42.42287" lon="0.11945">
        <ele>546.3</ele>
        <time>2016-07-24T07:52:17Z</time>
      </trkpt>
      <trkpt lat="42.4229" lon="0.11939">
        <ele>546.3</ele>
        <time>2016-07-24T07:52:18Z</time>
      </trkpt>
      <trkpt lat="42.42293" lon="0.11934">
        <ele>546.3</ele>
        <time>2016-07-24T07:52:19Z</time>
      </trkpt>
      <trkpt lat="42.42297" lon="0.1193">
        <ele>546.2</ele>
        <time>2016-07-24T07:52:20Z</time>
      </trkpt>
      <trkpt lat="42.423" lon="0.11926">
        <ele>546.2</ele>
        <time>2016-07-24T07:52:21Z</time>
      </trkpt>
      <trkpt lat="42.42303" lon="0.1192">
        <ele>546.2</ele>
        <time>2016-07-24T07:52:22Z</time>
      </trkpt>
      <trkpt lat="42.42306" lon="0.11915">
        <ele>546.2</ele>
        <time>2016-07-24T07:52:23Z</time>
      </trkpt>
      <trkpt lat="42.4231" lon="0.11911">
        <ele>546.2</ele>
        <time>2016-07-24T07:52:24Z</time>
      </trkpt>
      <trkpt lat="42.42313" lon="0.11905">
        <ele>546.2</ele>
        <time>2016-07-24T07:52:25Z</time>
      </trkpt>
      <trkpt lat="42.42316" lon="0.11901">
        <ele>546.2</ele>
        <time>2016-07-24T07:52:26Z</time>
      </trkpt>
      <trkpt lat="42.42319" lon="0.11895">
        <ele>546.3</ele>
        <time>2016-07-24T07:52:27Z</time>
      </trkpt>
      <trkpt lat="42.42322" lon="0.1189">
        <ele>546.3</ele>
        <time>2016-07-24T07:52:28Z</time>
      </trkpt>
      <trkpt lat="42.42325" lon="0.11884">
        <ele>546.4</ele>
        <time>2016-07-24T07:52:29Z</time>
      </trkpt>
      <trkpt lat="42.42328" lon="0.11879">
        <ele>546.5</ele>
        <time>2016-07-24T07:52:30Z</time>
      </trkpt>
      <trkpt lat="42.42332" lon="0.11873">
        <ele>546.5</ele>
        <time>2016-07-24T07:52:31Z</time>
      </trkpt>
      <trkpt lat="42.42335" lon="0.11867">
        <ele>546.5</ele>
        <time>2016-07-24T07:52:32Z</time>
      </trkpt>
      <trkpt lat="42.42339" lon="0.11863">
        <ele>546.5</ele>
        <time>2016-07-24T07:52:33Z</time>
      </trkpt>
      <trkpt lat="42.42342" lon="0.11858">
        <ele>546.6</ele>
        <time>2016-07-24T07:52:34Z</time>
      </trkpt>
      <trkpt lat="42.42346" lon="0.11854">
        <ele>546.6</ele>
        <time>2016-07-24T07:52:35Z</time>
      </trkpt>
      <trkpt lat="42.4235" lon="0.11848">
        <ele>546.7</ele>
        <time>2016-07-24T07:52:36Z</time>
      </trkpt>
      <trkpt lat="42.42353" lon="0.11841">
        <ele>546.8</ele>
        <time>2016-07-24T07:52:37Z</time>
      </trkpt>
      <trkpt lat="42.42356" lon="0.11837">
        <ele>546.8</ele>
        <time>2016-07-24T07:52:38Z</time>
      </trkpt>
      <trkpt lat="42.4236" lon="0.11833">
        <ele>546.9</ele>
        <time>2016-07-24T07:52:39Z</time>
      </trkpt>
      <trkpt lat="42.42363" lon="0.11829">
        <ele>547</ele>
        <time>2016-07-24T07:52:40Z</time>
      </trkpt>
      <trkpt lat="42.42367" lon="0.11824">
        <ele>547.1</ele>
        <time>2016-07-24T07:52:41Z</time>
      </trkpt>
      <trkpt lat="42.42371" lon="0.11819">
        <ele>547.3</ele>
        <time>2016-07-24T07:52:42Z</time>
      </trkpt>
      <trkpt lat="42.42376" lon="0.11814">
        <ele>547.5</ele>
        <time>2016-07-24T07:52:43Z</time>
      </trkpt>
      <trkpt lat="42.42381" lon="0.1181">
        <ele>547.6</ele>
        <time>2016-07-24T07:52:44Z</time>
      </trkpt>
      <trkpt lat="42.42386" lon="0.11805">
        <ele>547.7</ele>
        <time>2016-07-24T07:52:45Z</time>
      </trkpt>
      <trkpt lat="42.42389" lon="0.11801">
        <ele>547.9</ele>
        <time>2016-07-24T07:52:46Z</time>
      </trkpt>
      <trkpt lat="42.42392" lon="0.11798">
        <ele>548</ele>
        <time>2016-07-24T07:52:47Z</time>
      </trkpt>
      <trkpt lat="42.42396" lon="0.11794">
        <ele>548.2</ele>
        <time>2016-07-24T07:52:48Z</time>
      </trkpt>
      <trkpt lat="42.424" lon="0.11791">
        <ele>548.3</ele>
        <time>2016-07-24T07:52:49Z</time>
      </trkpt>
      <trkpt lat="42.42405" lon="0.11786">
        <ele>548.3</ele>
        <time>2016-07-24T07:52:50Z</time>
      </trkpt>
      <trkpt lat="42.42409" lon="0.11783">
        <ele>548.3</ele>
        <time>2016-07-24T07:52:51Z</time>
      </trkpt>
      <trkpt lat="42.42413" lon="0.1178">
        <ele>548.3</ele>
        <time>2016-07-24T07:52:52Z</time>
      </trkpt>
      <trkpt lat="42.42417" lon="0.11776">
        <ele>548.3</ele>
        <time>2016-07-24T07:52:53Z</time>
      </trkpt>
      <trkpt lat="42.42421" lon="0.11772">
        <ele>548.3</ele>
        <time>2016-07-24T07:52:54Z</time>
      </trkpt>
      <trkpt lat="42.42425" lon="0.11767">
        <ele>548.4</ele>
        <time>2016-07-24T07:52:55Z</time>
      </trkpt>
      <trkpt lat="42.42429" lon="0.11764">
        <ele>548.4</ele>
        <time>2016-07-24T07:52:56Z</time>
      </trkpt>
      <trkpt lat="42.42434" lon="0.11762">
        <ele>548.5</ele>
        <time>2016-07-24T07:52:57Z</time>
      </trkpt>
      <trkpt lat="42.42437" lon="0.11758">
        <ele>548.5</ele>
        <time>2016-07-24T07:52:58Z</time>
      </trkpt>
      <trkpt lat="42.42442" lon="0.11754">
        <ele>548.6</ele>
        <time>2016-07-24T07:52:59Z</time>
      </trkpt>
      <trkpt lat="42.42445" lon="0.11752">
        <ele>548.7</ele>
        <time>2016-07-24T07:53:00Z</time>
      </trkpt>
      <trkpt lat="42.42451" lon="0.11751">
        <ele>548.8</ele>
        <time>2016-07-24T07:53:01Z</time>
      </trkpt>
      <trkpt lat="42.42455" lon="0.11747">
        <ele>548.9</ele>
        <time>2016-07-24T07:53:02Z</time>
      </trkpt>
      <trkpt lat="42.42459" lon="0.11744">
        <ele>549</ele>
        <time>2016-07-24T07:53:03Z</time>
      </trkpt>
      <trkpt lat="42.42464" lon="0.11741">
        <ele>548.8</ele>
        <time>2016-07-24T07:53:04Z</time>
      </trkpt>
      <trkpt lat="42.42469" lon="0.11738">
        <ele>548.7</ele>
        <time>2016-07-24T07:53:05Z</time>
      </trkpt>
      <trkpt lat="42.42472" lon="0.11733">
        <ele>548.6</ele>
        <time>2016-07-24T07:53:06Z</time>
      </trkpt>
      <trkpt lat="42.42475" lon="0.1173">
        <ele>548.5</ele>
        <time>2016-07-24T07:53:07Z</time>
      </trkpt>
      <trkpt lat="42.42478" lon="0.11729">
        <ele>548.4</ele>
        <time>2016-07-24T07:53:08Z</time>
      </trkpt>
      <trkpt lat="42.42483" lon="0.11724">
        <ele>548.3</ele>
        <time>2016-07-24T07:53:09Z</time>
      </trkpt>
      <trkpt lat="42.42487" lon="0.11721">
        <ele>548.2</ele>
        <time>2016-07-24T07:53:10Z</time>
      </trkpt>
      <trkpt lat="42.4249" lon="0.11717">
        <ele>548.2</ele>
        <time>2016-07-24T07:53:11Z</time>
      </trkpt>
      <trkpt lat="42.42494" lon="0.11713">
        <ele>548.1</ele>
        <time>2016-07-24T07:53:12Z</time>
      </trkpt>
      <trkpt lat="42.42499" lon="0.11708">
        <ele>548</ele>
        <time>2016-07-24T07:53:13Z</time>
      </trkpt>
      <trkpt lat="42.42502" lon="0.11705">
        <ele>547.9</ele>
        <time>2016-07-24T07:53:14Z</time>
      </trkpt>
      <trkpt lat="42.42507" lon="0.11702">
        <ele>547.8</ele>
        <time>2016-07-24T07:53:15Z</time>
      </trkpt>
      <trkpt lat="42.42512" lon="0.11699">
        <ele>547.7</ele>
        <time>2016-07-24T07:53:16Z</time>
      </trkpt>
      <trkpt lat="42.42516" lon="0.11696">
        <ele>547.7</ele>
        <time>2016-07-24T07:53:17Z</time>
      </trkpt>
      <trkpt lat="42.42519" lon="0.11694">
        <ele>547.7</ele>
        <time>2016-07-24T07:53:18Z</time>
      </trkpt>
      <trkpt lat="42.42522" lon="0.11689">
        <ele>547.7</ele>
        <time>2016-07-24T07:53:19Z</time>
      </trkpt>
      <trkpt lat="42.42525" lon="0.11684">
        <ele>547.7</ele>
        <time>2016-07-24T07:53:20Z</time>
      </trkpt>
      <trkpt lat="42.42528" lon="0.1168">
        <ele>547.7</ele>
        <time>2016-07-24T07:53:21Z</time>
      </trkpt>
      <trkpt lat="42.42532" lon="0.11675">
        <ele>547.8</ele>
        <time>2016-07-24T07:53:22Z</time>
      </trkpt>
      <trkpt lat="42.42536" lon="0.11672">
        <ele>547.9</ele>
        <time>2016-07-24T07:53:23Z</time>
      </trkpt>
      <trkpt lat="42.42541" lon="0.11668">
        <ele>548</ele>
        <time>2016-07-24T07:53:24Z</time>
      </trkpt>
      <trkpt lat="42.42544" lon="0.11664">
        <ele>548</ele>
        <time>2016-07-24T07:53:25Z</time>
      </trkpt>
      <trkpt lat="42.42548" lon="0.11659">
        <ele>548.1</ele>
        <time>2016-07-24T07:53:26Z</time>
      </trkpt>
      <trkpt lat="42.42551" lon="0.11655">
        <ele>548.2</ele>
        <time>2016-07-24T07:53:27Z</time>
      </trkpt>
      <trkpt lat="42.42554" lon="0.1165">
        <ele>548.2</ele>
        <time>2016-07-24T07:53:28Z</time>
      </trkpt>
      <trkpt lat="42.42558" lon="0.11647">
        <ele>548.2</ele>
        <time>2016-07-24T07:53:29Z</time>
      </trkpt>
      <trkpt lat="42.42561" lon="0.11643">
        <ele>548.2</ele>
        <time>2016-07-24T07:53:30Z</time>
      </trkpt>
      <trkpt lat="42.42565" lon="0.11637">
        <ele>548.2</ele>
        <time>2016-07-24T07:53:31Z</time>
      </trkpt>
      <trkpt lat="42.4257" lon="0.11634">
        <ele>548.2</ele>
        <time>2016-07-24T07:53:32Z</time>
      </trkpt>
      <trkpt lat="42.42575" lon="0.1163">
        <ele>548.1</ele>
        <time>2016-07-24T07:53:33Z</time>
      </trkpt>
      <trkpt lat="42.42577" lon="0.11626">
        <ele>548.1</ele>
        <time>2016-07-24T07:53:34Z</time>
      </trkpt>
      <trkpt lat="42.4258" lon="0.11622">
        <ele>548.2</ele>
        <time>2016-07-24T07:53:35Z</time>
      </trkpt>
      <trkpt lat="42.42583" lon="0.11617">
        <ele>548.2</ele>
        <time>2016-07-24T07:53:36Z</time>
      </trkpt>
      <trkpt lat="42.42587" lon="0.11612">
        <ele>548.3</ele>
        <time>2016-07-24T07:53:37Z</time>
      </trkpt>
      <trkpt lat="42.4259" lon="0.11607">
        <ele>548.4</ele>
        <time>2016-07-24T07:53:38Z</time>
      </trkpt>
      <trkpt lat="42.42594" lon="0.11603">
        <ele>548.5</ele>
        <time>2016-07-24T07:53:39Z</time>
      </trkpt>
      <trkpt lat="42.42598" lon="0.11599">
        <ele>548.6</ele>
        <time>2016-07-24T07:53:40Z</time>
      </trkpt>
      <trkpt lat="42.42601" lon="0.11595">
        <ele>548.7</ele>
        <time>2016-07-24T07:53:41Z</time>
      </trkpt>
      <trkpt lat="42.42605" lon="0.11589">
        <ele>548.9</ele>
        <time>2016-07-24T07:53:42Z</time>
      </trkpt>
      <trkpt lat="42.42608" lon="0.11585">
        <ele>549</ele>
        <time>2016-07-24T07:53:43Z</time>
      </trkpt>
      <trkpt lat="42.42613" lon="0.1158">
        <ele>549.2</ele>
        <time>2016-07-24T07:53:44Z</time>
      </trkpt>
      <trkpt lat="42.42617" lon="0.11576">
        <ele>549.4</ele>
        <time>2016-07-24T07:53:45Z</time>
      </trkpt>
      <trkpt lat="42.42621" lon="0.11572">
        <ele>549.6</ele>
        <time>2016-07-24T07:53:46Z</time>
      </trkpt>
      <trkpt lat="42.42626" lon="0.11568">
        <ele>549.8</ele>
        <time>2016-07-24T07:53:47Z</time>
      </trkpt>
      <trkpt lat="42.42629" lon="0.11564">
        <ele>549.9</ele>
        <time>2016-07-24T07:53:48Z</time>
      </trkpt>
      <trkpt lat="42.42633" lon="0.1156">
        <ele>550</ele>
        <time>2016-07-24T07:53:49Z</time>
      </trkpt>
      <trkpt lat="42.42638" lon="0.11556">
        <ele>550.2</ele>
        <time>2016-07-24T07:53:50Z</time>
      </trkpt>
      <trkpt lat="42.42641" lon="0.11552">
        <ele>550.3</ele>
        <time>2016-07-24T07:53:51Z</time>
      </trkpt>
      <trkpt lat="42.42645" lon="0.11547">
        <ele>550.5</ele>
        <time>2016-07-24T07:53:52Z</time>
      </trkpt>
      <trkpt lat="42.42649" lon="0.11543">
        <ele>550.7</ele>
        <time>2016-07-24T07:53:53Z</time>
      </trkpt>
      <trkpt lat="42.42652" lon="0.11539">
        <ele>550.7</ele>
        <time>2016-07-24T07:53:54Z</time>
      </trkpt>
      <trkpt lat="42.42656" lon="0.11534">
        <ele>550.8</ele>
        <time>2016-07-24T07:53:55Z</time>
      </trkpt>
      <trkpt lat="42.4266" lon="0.1153">
        <ele>550.8</ele>
        <time>2016-07-24T07:53:56Z</time>
      </trkpt>
      <trkpt lat="42.42665" lon="0.11526">
        <ele>550.9</ele>
        <time>2016-07-24T07:53:57Z</time>
      </trkpt>
      <trkpt lat="42.42669" lon="0.11522">
        <ele>551</ele>
        <time>2016-07-24T07:53:58Z</time>
      </trkpt>
      <trkpt lat="42.42673" lon="0.11516">
        <ele>551.1</ele>
        <time>2016-07-24T07:53:59Z</time>
      </trkpt>
      <trkpt lat="42.42677" lon="0.11512">
        <ele>551.2</ele>
        <time>2016-07-24T07:54:00Z</time>
      </trkpt>
      <trkpt lat="42.42682" lon="0.11507">
        <ele>551.3</ele>
        <time>2016-07-24T07:54:01Z</time>
      </trkpt>
      <trkpt lat="42.42686" lon="0.11502">
        <ele>551.4</ele>
        <time>2016-07-24T07:54:02Z</time>
      </trkpt>
      <trkpt lat="42.4269" lon="0.11498">
        <ele>551.5</ele>
        <time>2016-07-24T07:54:03Z</time>
      </trkpt>
      <trkpt lat="42.42694" lon="0.11494">
        <ele>551.7</ele>
        <time>2016-07-24T07:54:04Z</time>
      </trkpt>
      <trkpt lat="42.42698" lon="0.11488">
        <ele>551.9</ele>
        <time>2016-07-24T07:54:05Z</time>
      </trkpt>
      <trkpt lat="42.42702" lon="0.11483">
        <ele>552.1</ele>
        <time>2016-07-24T07:54:06Z</time>
      </trkpt>
      <trkpt lat="42.42706" lon="0.1148">
        <ele>552.2</ele>
        <time>2016-07-24T07:54:07Z</time>
      </trkpt>
      <trkpt lat="42.4271" lon="0.11474">
        <ele>552.4</ele>
        <time>2016-07-24T07:54:08Z</time>
      </trkpt>
      <trkpt lat="42.42713" lon="0.11469">
        <ele>552.5</ele>
        <time>2016-07-24T07:54:09Z</time>
      </trkpt>
      <trkpt lat="42.42717" lon="0.11465">
        <ele>552.5</ele>
        <time>2016-07-24T07:54:10Z</time>
      </trkpt>
      <trkpt lat="42.42721" lon="0.11461">
        <ele>552.4</ele>
        <time>2016-07-24T07:54:11Z</time>
      </trkpt>
      <trkpt lat="42.42725" lon="0.11457">
        <ele>552.4</ele>
        <time>2016-07-24T07:54:12Z</time>
      </trkpt>
      <trkpt lat="42.42732" lon="0.11453">
        <ele>552</ele>
        <time>2016-07-24T07:54:13Z</time>
      </trkpt>
      <trkpt lat="42.42735" lon="0.11449">
        <ele>551.8</ele>
        <time>2016-07-24T07:54:14Z</time>
      </trkpt>
      <trkpt lat="42.4274" lon="0.11445">
        <ele>551.6</ele>
        <time>2016-07-24T07:54:15Z</time>
      </trkpt>
      <trkpt lat="42.42743" lon="0.11441">
        <ele>551.5</ele>
        <time>2016-07-24T07:54:16Z</time>
      </trkpt>
      <trkpt lat="42.42747" lon="0.11436">
        <ele>551.3</ele>
        <time>2016-07-24T07:54:17Z</time>
      </trkpt>
      <trkpt lat="42.42751" lon="0.11432">
        <ele>551.2</ele>
        <time>2016-07-24T07:54:18Z</time>
      </trkpt>
      <trkpt lat="42.42756" lon="0.11428">
        <ele>551</ele>
        <time>2016-07-24T07:54:19Z</time>
      </trkpt>
      <trkpt lat="42.42759" lon="0.11423">
        <ele>550.9</ele>
        <time>2016-07-24T07:54:20Z</time>
      </trkpt>
      <trkpt lat="42.42763" lon="0.11418">
        <ele>550.8</ele>
        <time>2016-07-24T07:54:21Z</time>
      </trkpt>
      <trkpt lat="42.42767" lon="0.11414">
        <ele>550.8</ele>
        <time>2016-07-24T07:54:22Z</time>
      </trkpt>
      <trkpt lat="42.42771" lon="0.11409">
        <ele>550.8</ele>
        <time>2016-07-24T07:54:23Z</time>
      </trkpt>
      <trkpt lat="42.42775" lon="0.11404">
        <ele>550.7</ele>
        <time>2016-07-24T07:54:24Z</time>
      </trkpt>
      <trkpt lat="42.42778" lon="0.11398">
        <ele>550.7</ele>
        <time>2016-07-24T07:54:25Z</time>
      </trkpt>
      <trkpt lat="42.42782" lon="0.11392">
        <ele>550.8</ele>
        <time>2016-07-24T07:54:26Z</time>
      </trkpt>
      <trkpt lat="42.42785" lon="0.11387">
        <ele>550.8</ele>
        <time>2016-07-24T07:54:27Z</time>
      </trkpt>
      <trkpt lat="42.42788" lon="0.11382">
        <ele>550.9</ele>
        <time>2016-07-24T07:54:28Z</time>
      </trkpt>
      <trkpt lat="42.42792" lon="0.11377">
        <ele>551</ele>
        <time>2016-07-24T07:54:29Z</time>
      </trkpt>
      <trkpt lat="42.42795" lon="0.11371">
        <ele>551</ele>
        <time>2016-07-24T07:54:30Z</time>
      </trkpt>
      <trkpt lat="42.42799" lon="0.11366">
        <ele>551.1</ele>
        <time>2016-07-24T07:54:31Z</time>
      </trkpt>
      <trkpt lat="42.42802" lon="0.1136">
        <ele>551.1</ele>
        <time>2016-07-24T07:54:32Z</time>
      </trkpt>
      <trkpt lat="42.42806" lon="0.11354">
        <ele>551.2</ele>
        <time>2016-07-24T07:54:33Z</time>
      </trkpt>
      <trkpt lat="42.42808" lon="0.11348">
        <ele>551.3</ele>
        <time>2016-07-24T07:54:34Z</time>
      </trkpt>
      <trkpt lat="42.42812" lon="0.11343">
        <ele>551.3</ele>
        <time>2016-07-24T07:54:35Z</time>
      </trkpt>
      <trkpt lat="42.42815" lon="0.11338">
        <ele>551.4</ele>
        <time>2016-07-24T07:54:36Z</time>
      </trkpt>
      <trkpt lat="42.42818" lon="0.11332">
        <ele>551.5</ele>
        <time>2016-07-24T07:54:37Z</time>
      </trkpt>
      <trkpt lat="42.42821" lon="0.11326">
        <ele>551.6</ele>
        <time>2016-07-24T07:54:38Z</time>
      </trkpt>
      <trkpt lat="42.42823" lon="0.1132">
        <ele>551.6</ele>
        <time>2016-07-24T07:54:39Z</time>
      </trkpt>
      <trkpt lat="42.42826" lon="0.11315">
        <ele>551.7</ele>
        <time>2016-07-24T07:54:40Z</time>
      </trkpt>
      <trkpt lat="42.42829" lon="0.11309">
        <ele>551.8</ele>
        <time>2016-07-24T07:54:41Z</time>
      </trkpt>
      <trkpt lat="42.42831" lon="0.11303">
        <ele>551.9</ele>
        <time>2016-07-24T07:54:42Z</time>
      </trkpt>
      <trkpt lat="42.42834" lon="0.11297">
        <ele>552</ele>
        <time>2016-07-24T07:54:43Z</time>
      </trkpt>
      <trkpt lat="42.42836" lon="0.1129">
        <ele>552.1</ele>
        <time>2016-07-24T07:54:44Z</time>
      </trkpt>
      <trkpt lat="42.42838" lon="0.11284">
        <ele>552.3</ele>
        <time>2016-07-24T07:54:45Z</time>
      </trkpt>
      <trkpt lat="42.42841" lon="0.11278">
        <ele>552.6</ele>
        <time>2016-07-24T07:54:46Z</time>
      </trkpt>
      <trkpt lat="42.42843" lon="0.11271">
        <ele>552.8</ele>
        <time>2016-07-24T07:54:47Z</time>
      </trkpt>
      <trkpt lat="42.42844" lon="0.11265">
        <ele>553</ele>
        <time>2016-07-24T07:54:48Z</time>
      </trkpt>
      <trkpt lat="42.42846" lon="0.11259">
        <ele>553.2</ele>
        <time>2016-07-24T07:54:49Z</time>
      </trkpt>
      <trkpt lat="42.42847" lon="0.11252">
        <ele>553.5</ele>
        <time>2016-07-24T07:54:50Z</time>
      </trkpt>
      <trkpt lat="42.42849" lon="0.11245">
        <ele>553.7</ele>
        <time>2016-07-24T07:54:51Z</time>
      </trkpt>
      <trkpt lat="42.42851" lon="0.11238">
        <ele>553.9</ele>
        <time>2016-07-24T07:54:52Z</time>
      </trkpt>
      <trkpt lat="42.42852" lon="0.11232">
        <ele>554.1</ele>
        <time>2016-07-24T07:54:53Z</time>
      </trkpt>
      <trkpt lat="42.42853" lon="0.11226">
        <ele>554.3</ele>
        <time>2016-07-24T07:54:54Z</time>
      </trkpt>
      <trkpt lat="42.42855" lon="0.11219">
        <ele>554.5</ele>
        <time>2016-07-24T07:54:55Z</time>
      </trkpt>
      <trkpt lat="42.42857" lon="0.11212">
        <ele>554.7</ele>
        <time>2016-07-24T07:54:56Z</time>
      </trkpt>
      <trkpt lat="42.42859" lon="0.11206">
        <ele>554.8</ele>
        <time>2016-07-24T07:54:57Z</time>
      </trkpt>
      <trkpt lat="42.4286" lon="0.11199">
        <ele>555</ele>
        <time>2016-07-24T07:54:58Z</time>
      </trkpt>
      <trkpt lat="42.42862" lon="0.11193">
        <ele>555.1</ele>
        <time>2016-07-24T07:54:59Z</time>
      </trkpt>
      <trkpt lat="42.42864" lon="0.11185">
        <ele>555.3</ele>
        <time>2016-07-24T07:55:00Z</time>
      </trkpt>
      <trkpt lat="42.42865" lon="0.11178">
        <ele>555.5</ele>
        <time>2016-07-24T07:55:01Z</time>
      </trkpt>
      <trkpt lat="42.42866" lon="0.11172">
        <ele>555.6</ele>
        <time>2016-07-24T07:55:02Z</time>
      </trkpt>
      <trkpt lat="42.42867" lon="0.11165">
        <ele>555.8</ele>
        <time>2016-07-24T07:55:03Z</time>
      </trkpt>
      <trkpt lat="42.42868" lon="0.1116">
        <ele>555.9</ele>
        <time>2016-07-24T07:55:04Z</time>
      </trkpt>
      <trkpt lat="42.4287" lon="0.11154">
        <ele>556.1</ele>
        <time>2016-07-24T07:55:05Z</time>
      </trkpt>
      <trkpt lat="42.42871" lon="0.11147">
        <ele>556.3</ele>
        <time>2016-07-24T07:55:06Z</time>
      </trkpt>
      <trkpt lat="42.42872" lon="0.11141">
        <ele>556.5</ele>
        <time>2016-07-24T07:55:07Z</time>
      </trkpt>
      <trkpt lat="42.42872" lon="0.11135">
        <ele>556.6</ele>
        <time>2016-07-24T07:55:08Z</time>
      </trkpt>
      <trkpt lat="42.42873" lon="0.11129">
        <ele>556.8</ele>
        <time>2016-07-24T07:55:09Z</time>
      </trkpt>
      <trkpt lat="42.42875" lon="0.11123">
        <ele>557</ele>
        <time>2016-07-24T07:55:10Z</time>
      </trkpt>
      <trkpt lat="42.42876" lon="0.11116">
        <ele>556.9</ele>
        <time>2016-07-24T07:55:11Z</time>
      </trkpt>
      <trkpt lat="42.42876" lon="0.11109">
        <ele>556.8</ele>
        <time>2016-07-24T07:55:12Z</time>
      </trkpt>
      <trkpt lat="42.42878" lon="0.11105">
        <ele>556.6</ele>
        <time>2016-07-24T07:55:13Z</time>
      </trkpt>
      <trkpt lat="42.42878" lon="0.11097">
        <ele>556.5</ele>
        <time>2016-07-24T07:55:14Z</time>
      </trkpt>
      <trkpt lat="42.42879" lon="0.1109">
        <ele>556.4</ele>
        <time>2016-07-24T07:55:15Z</time>
      </trkpt>
      <trkpt lat="42.42879" lon="0.11083">
        <ele>556.3</ele>
        <time>2016-07-24T07:55:16Z</time>
      </trkpt>
      <trkpt lat="42.42879" lon="0.11076">
        <ele>556.3</ele>
        <time>2016-07-24T07:55:17Z</time>
      </trkpt>
      <trkpt lat="42.42879" lon="0.1107">
        <ele>556.2</ele>
        <time>2016-07-24T07:55:18Z</time>
      </trkpt>
      <trkpt lat="42.42878" lon="0.11064">
        <ele>556.2</ele>
        <time>2016-07-24T07:55:19Z</time>
      </trkpt>
      <trkpt lat="42.42875" lon="0.11057">
        <ele>556.2</ele>
        <time>2016-07-24T07:55:20Z</time>
      </trkpt>
      <trkpt lat="42.42873" lon="0.11051">
        <ele>556</ele>
        <time>2016-07-24T07:55:21Z</time>
      </trkpt>
      <trkpt lat="42.42871" lon="0.11047">
        <ele>555.9</ele>
        <time>2016-07-24T07:55:22Z</time>
      </trkpt>
      <trkpt lat="42.42868" lon="0.1104">
        <ele>555.8</ele>
        <time>2016-07-24T07:55:23Z</time>
      </trkpt>
      <trkpt lat="42.42866" lon="0.11035">
        <ele>555.6</ele>
        <time>2016-07-24T07:55:24Z</time>
      </trkpt>
      <trkpt lat="42.42865" lon="0.11029">
        <ele>555.6</ele>
        <time>2016-07-24T07:55:25Z</time>
      </trkpt>
      <trkpt lat="42.42862" lon="0.11023">
        <ele>555.5</ele>
        <time>2016-07-24T07:55:26Z</time>
      </trkpt>
      <trkpt lat="42.4286" lon="0.11017">
        <ele>555.4</ele>
        <time>2016-07-24T07:55:27Z</time>
      </trkpt>
      <trkpt lat="42.42857" lon="0.11011">
        <ele>555.3</ele>
        <time>2016-07-24T07:55:28Z</time>
      </trkpt>
      <trkpt lat="42.42855" lon="0.11006">
        <ele>555.3</ele>
        <time>2016-07-24T07:55:29Z</time>
      </trkpt>
      <trkpt lat="42.42853" lon="0.11001">
        <ele>555.2</ele>
        <time>2016-07-24T07:55:30Z</time>
      </trkpt>
      <trkpt lat="42.42851" lon="0.10995">
        <ele>555.2</ele>
        <time>2016-07-24T07:55:31Z</time>
      </trkpt>
      <trkpt lat="42.42848" lon="0.10989">
        <ele>555.2</ele>
        <time>2016-07-24T07:55:32Z</time>
      </trkpt>
      <trkpt lat="42.42845" lon="0.10983">
        <ele>555.2</ele>
        <time>2016-07-24T07:55:33Z</time>
      </trkpt>
      <trkpt lat="42.42842" lon="0.10975">
        <ele>555.3</ele>
        <time>2016-07-24T07:55:34Z</time>
      </trkpt>
      <trkpt lat="42.42841" lon="0.10968">
        <ele>555.3</ele>
        <time>2016-07-24T07:55:35Z</time>
      </trkpt>
      <trkpt lat="42.42839" lon="0.10962">
        <ele>555.4</ele>
        <time>2016-07-24T07:55:36Z</time>
      </trkpt>
      <trkpt lat="42.42838" lon="0.10955">
        <ele>555.4</ele>
        <time>2016-07-24T07:55:37Z</time>
      </trkpt>
      <trkpt lat="42.42837" lon="0.10948">
        <ele>555.5</ele>
        <time>2016-07-24T07:55:38Z</time>
      </trkpt>
      <trkpt lat="42.42838" lon="0.1094">
        <ele>555.4</ele>
        <time>2016-07-24T07:55:39Z</time>
      </trkpt>
      <trkpt lat="42.42837" lon="0.10933">
        <ele>555.4</ele>
        <time>2016-07-24T07:55:40Z</time>
      </trkpt>
      <trkpt lat="42.42837" lon="0.10928">
        <ele>555.4</ele>
        <time>2016-07-24T07:55:41Z</time>
      </trkpt>
      <trkpt lat="42.42837" lon="0.10924">
        <ele>555.4</ele>
        <time>2016-07-24T07:55:42Z</time>
      </trkpt>
      <trkpt lat="42.42836" lon="0.10917">
        <ele>555.4</ele>
        <time>2016-07-24T07:55:43Z</time>
      </trkpt>
      <trkpt lat="42.42835" lon="0.1091">
        <ele>555.4</ele>
        <time>2016-07-24T07:55:44Z</time>
      </trkpt>
      <trkpt lat="42.42835" lon="0.10904">
        <ele>555.5</ele>
        <time>2016-07-24T07:55:45Z</time>
      </trkpt>
      <trkpt lat="42.42835" lon="0.10893">
        <ele>555.4</ele>
        <time>2016-07-24T07:55:47Z</time>
      </trkpt>
      <trkpt lat="42.42835" lon="0.10887">
        <ele>555.5</ele>
        <time>2016-07-24T07:55:48Z</time>
      </trkpt>
      <trkpt lat="42.42834" lon="0.1088">
        <ele>555.5</ele>
        <time>2016-07-24T07:55:49Z</time>
      </trkpt>
      <trkpt lat="42.42835" lon="0.10872">
        <ele>555.4</ele>
        <time>2016-07-24T07:55:50Z</time>
      </trkpt>
      <trkpt lat="42.42834" lon="0.10864">
        <ele>555.3</ele>
        <time>2016-07-24T07:55:51Z</time>
      </trkpt>
      <trkpt lat="42.42834" lon="0.10857">
        <ele>555.3</ele>
        <time>2016-07-24T07:55:52Z</time>
      </trkpt>
      <trkpt lat="42.42834" lon="0.10849">
        <ele>555.2</ele>
        <time>2016-07-24T07:55:53Z</time>
      </trkpt>
      <trkpt lat="42.42834" lon="0.10842">
        <ele>555.1</ele>
        <time>2016-07-24T07:55:54Z</time>
      </trkpt>
      <trkpt lat="42.42833" lon="0.10835">
        <ele>555</ele>
        <time>2016-07-24T07:55:55Z</time>
      </trkpt>
      <trkpt lat="42.42832" lon="0.10828">
        <ele>555</ele>
        <time>2016-07-24T07:55:56Z</time>
      </trkpt>
      <trkpt lat="42.42831" lon="0.10821">
        <ele>554.9</ele>
        <time>2016-07-24T07:55:57Z</time>
      </trkpt>
      <trkpt lat="42.4283" lon="0.10814">
        <ele>554.8</ele>
        <time>2016-07-24T07:55:58Z</time>
      </trkpt>
      <trkpt lat="42.4283" lon="0.10808">
        <ele>554.7</ele>
        <time>2016-07-24T07:55:59Z</time>
      </trkpt>
      <trkpt lat="42.4283" lon="0.10801">
        <ele>554.7</ele>
        <time>2016-07-24T07:56:00Z</time>
      </trkpt>
      <trkpt lat="42.4283" lon="0.10793">
        <ele>554.6</ele>
        <time>2016-07-24T07:56:01Z</time>
      </trkpt>
      <trkpt lat="42.42829" lon="0.10786">
        <ele>554.6</ele>
        <time>2016-07-24T07:56:02Z</time>
      </trkpt>
      <trkpt lat="42.42829" lon="0.10778">
        <ele>554.8</ele>
        <time>2016-07-24T07:56:03Z</time>
      </trkpt>
      <trkpt lat="42.42829" lon="0.10772">
        <ele>554.9</ele>
        <time>2016-07-24T07:56:04Z</time>
      </trkpt>
      <trkpt lat="42.4283" lon="0.10764">
        <ele>555</ele>
        <time>2016-07-24T07:56:05Z</time>
      </trkpt>
      <trkpt lat="42.42829" lon="0.10756">
        <ele>555.2</ele>
        <time>2016-07-24T07:56:06Z</time>
      </trkpt>
      <trkpt lat="42.42829" lon="0.10751">
        <ele>555.3</ele>
        <time>2016-07-24T07:56:07Z</time>
      </trkpt>
      <trkpt lat="42.4283" lon="0.10744">
        <ele>555.4</ele>
        <time>2016-07-24T07:56:08Z</time>
      </trkpt>
      <trkpt lat="42.42832" lon="0.10738">
        <ele>555.5</ele>
        <time>2016-07-24T07:56:09Z</time>
      </trkpt>
      <trkpt lat="42.42832" lon="0.1073">
        <ele>555.6</ele>
        <time>2016-07-24T07:56:10Z</time>
      </trkpt>
      <trkpt lat="42.42833" lon="0.10723">
        <ele>555.7</ele>
        <time>2016-07-24T07:56:11Z</time>
      </trkpt>
      <trkpt lat="42.42833" lon="0.10717">
        <ele>555.9</ele>
        <time>2016-07-24T07:56:12Z</time>
      </trkpt>
      <trkpt lat="42.42833" lon="0.1071">
        <ele>556</ele>
        <time>2016-07-24T07:56:13Z</time>
      </trkpt>
      <trkpt lat="42.42833" lon="0.10703">
        <ele>556</ele>
        <time>2016-07-24T07:56:14Z</time>
      </trkpt>
      <trkpt lat="42.42833" lon="0.10695">
        <ele>556.1</ele>
        <time>2016-07-24T07:56:15Z</time>
      </trkpt>
      <trkpt lat="42.42832" lon="0.10687">
        <ele>556.1</ele>
        <time>2016-07-24T07:56:16Z</time>
      </trkpt>
      <trkpt lat="42.42832" lon="0.1068">
        <ele>556.2</ele>
        <time>2016-07-24T07:56:17Z</time>
      </trkpt>
      <trkpt lat="42.42831" lon="0.10673">
        <ele>556.2</ele>
        <time>2016-07-24T07:56:18Z</time>
      </trkpt>
      <trkpt lat="42.42831" lon="0.10667">
        <ele>556.2</ele>
        <time>2016-07-24T07:56:19Z</time>
      </trkpt>
      <trkpt lat="42.4283" lon="0.1066">
        <ele>556.3</ele>
        <time>2016-07-24T07:56:20Z</time>
      </trkpt>
      <trkpt lat="42.42829" lon="0.10653">
        <ele>556.3</ele>
        <time>2016-07-24T07:56:21Z</time>
      </trkpt>
      <trkpt lat="42.42829" lon="0.10646">
        <ele>556.3</ele>
        <time>2016-07-24T07:56:22Z</time>
      </trkpt>
      <trkpt lat="42.42829" lon="0.10639">
        <ele>556.4</ele>
        <time>2016-07-24T07:56:23Z</time>
      </trkpt>
      <trkpt lat="42.42829" lon="0.10631">
        <ele>556.4</ele>
        <time>2016-07-24T07:56:24Z</time>
      </trkpt>
      <trkpt lat="42.4283" lon="0.10624">
        <ele>556.5</ele>
        <time>2016-07-24T07:56:25Z</time>
      </trkpt>
      <trkpt lat="42.42831" lon="0.10616">
        <ele>556.7</ele>
        <time>2016-07-24T07:56:26Z</time>
      </trkpt>
      <trkpt lat="42.42831" lon="0.10609">
        <ele>556.9</ele>
        <time>2016-07-24T07:56:27Z</time>
      </trkpt>
      <trkpt lat="42.42831" lon="0.10602">
        <ele>557</ele>
        <time>2016-07-24T07:56:28Z</time>
      </trkpt>
      <trkpt lat="42.42832" lon="0.10595">
        <ele>557.2</ele>
        <time>2016-07-24T07:56:29Z</time>
      </trkpt>
      <trkpt lat="42.42832" lon="0.10587">
        <ele>557.4</ele>
        <time>2016-07-24T07:56:30Z</time>
      </trkpt>
      <trkpt lat="42.42833" lon="0.10581">
        <ele>557.6</ele>
        <time>2016-07-24T07:56:31Z</time>
      </trkpt>
      <trkpt lat="42.42834" lon="0.10575">
        <ele>557.7</ele>
        <time>2016-07-24T07:56:32Z</time>
      </trkpt>
      <trkpt lat="42.42835" lon="0.10569">
        <ele>557.8</ele>
        <time>2016-07-24T07:56:33Z</time>
      </trkpt>
      <trkpt lat="42.42836" lon="0.10561">
        <ele>558</ele>
        <time>2016-07-24T07:56:34Z</time>
      </trkpt>
      <trkpt lat="42.42837" lon="0.10554">
        <ele>558.2</ele>
        <time>2016-07-24T07:56:35Z</time>
      </trkpt>
      <trkpt lat="42.42836" lon="0.10548">
        <ele>558.3</ele>
        <time>2016-07-24T07:56:36Z</time>
      </trkpt>
      <trkpt lat="42.42837" lon="0.10542">
        <ele>558.5</ele>
        <time>2016-07-24T07:56:37Z</time>
      </trkpt>
      <trkpt lat="42.42838" lon="0.10535">
        <ele>558.4</ele>
        <time>2016-07-24T07:56:38Z</time>
      </trkpt>
      <trkpt lat="42.42839" lon="0.10529">
        <ele>558.4</ele>
        <time>2016-07-24T07:56:39Z</time>
      </trkpt>
      <trkpt lat="42.4284" lon="0.10522">
        <ele>558.4</ele>
        <time>2016-07-24T07:56:40Z</time>
      </trkpt>
      <trkpt lat="42.42841" lon="0.10515">
        <ele>558.4</ele>
        <time>2016-07-24T07:56:41Z</time>
      </trkpt>
      <trkpt lat="42.42841" lon="0.10509">
        <ele>558.4</ele>
        <time>2016-07-24T07:56:42Z</time>
      </trkpt>
      <trkpt lat="42.42843" lon="0.10502">
        <ele>558.4</ele>
        <time>2016-07-24T07:56:43Z</time>
      </trkpt>
      <trkpt lat="42.42843" lon="0.10496">
        <ele>558.4</ele>
        <time>2016-07-24T07:56:44Z</time>
      </trkpt>
      <trkpt lat="42.42845" lon="0.10489">
        <ele>558.4</ele>
        <time>2016-07-24T07:56:45Z</time>
      </trkpt>
      <trkpt lat="42.42845" lon="0.10483">
        <ele>558.4</ele>
        <time>2016-07-24T07:56:46Z</time>
      </trkpt>
      <trkpt lat="42.42846" lon="0.10477">
        <ele>558.3</ele>
        <time>2016-07-24T07:56:47Z</time>
      </trkpt>
      <trkpt lat="42.42847" lon="0.1047">
        <ele>558.3</ele>
        <time>2016-07-24T07:56:48Z</time>
      </trkpt>
      <trkpt lat="42.42848" lon="0.10463">
        <ele>558.3</ele>
        <time>2016-07-24T07:56:49Z</time>
      </trkpt>
      <trkpt lat="42.42849" lon="0.10457">
        <ele>558.3</ele>
        <time>2016-07-24T07:56:50Z</time>
      </trkpt>
      <trkpt lat="42.42849" lon="0.1045">
        <ele>558.5</ele>
        <time>2016-07-24T07:56:51Z</time>
      </trkpt>
      <trkpt lat="42.4285" lon="0.10443">
        <ele>558.7</ele>
        <time>2016-07-24T07:56:52Z</time>
      </trkpt>
      <trkpt lat="42.4285" lon="0.10438">
        <ele>558.8</ele>
        <time>2016-07-24T07:56:53Z</time>
      </trkpt>
      <trkpt lat="42.42852" lon="0.10431">
        <ele>559</ele>
        <time>2016-07-24T07:56:54Z</time>
      </trkpt>
      <trkpt lat="42.42853" lon="0.10424">
        <ele>559.2</ele>
        <time>2016-07-24T07:56:55Z</time>
      </trkpt>
      <trkpt lat="42.42853" lon="0.10417">
        <ele>559.4</ele>
        <time>2016-07-24T07:56:56Z</time>
      </trkpt>
      <trkpt lat="42.42854" lon="0.1041">
        <ele>559.6</ele>
        <time>2016-07-24T07:56:57Z</time>
      </trkpt>
      <trkpt lat="42.42854" lon="0.10403">
        <ele>559.8</ele>
        <time>2016-07-24T07:56:58Z</time>
      </trkpt>
      <trkpt lat="42.42855" lon="0.10396">
        <ele>559.9</ele>
        <time>2016-07-24T07:56:59Z</time>
      </trkpt>
      <trkpt lat="42.42856" lon="0.10389">
        <ele>560.1</ele>
        <time>2016-07-24T07:57:00Z</time>
      </trkpt>
      <trkpt lat="42.42857" lon="0.10383">
        <ele>560.4</ele>
        <time>2016-07-24T07:57:01Z</time>
      </trkpt>
      <trkpt lat="42.42859" lon="0.10375">
        <ele>560.6</ele>
        <time>2016-07-24T07:57:02Z</time>
      </trkpt>
      <trkpt lat="42.4286" lon="0.10368">
        <ele>560.8</ele>
        <time>2016-07-24T07:57:03Z</time>
      </trkpt>
      <trkpt lat="42.42861" lon="0.10362">
        <ele>560.9</ele>
        <time>2016-07-24T07:57:04Z</time>
      </trkpt>
      <trkpt lat="42.42862" lon="0.10356">
        <ele>561.1</ele>
        <time>2016-07-24T07:57:05Z</time>
      </trkpt>
      <trkpt lat="42.42862" lon="0.1035">
        <ele>561.2</ele>
        <time>2016-07-24T07:57:06Z</time>
      </trkpt>
      <trkpt lat="42.42862" lon="0.10344">
        <ele>561.3</ele>
        <time>2016-07-24T07:57:07Z</time>
      </trkpt>
      <trkpt lat="42.42863" lon="0.10337">
        <ele>561.5</ele>
        <time>2016-07-24T07:57:08Z</time>
      </trkpt>
      <trkpt lat="42.42864" lon="0.1033">
        <ele>561.7</ele>
        <time>2016-07-24T07:57:09Z</time>
      </trkpt>
      <trkpt lat="42.42866" lon="0.10324">
        <ele>561.9</ele>
        <time>2016-07-24T07:57:10Z</time>
      </trkpt>
      <trkpt lat="42.42867" lon="0.10318">
        <ele>562</ele>
        <time>2016-07-24T07:57:11Z</time>
      </trkpt>
      <trkpt lat="42.42868" lon="0.10311">
        <ele>562.2</ele>
        <time>2016-07-24T07:57:12Z</time>
      </trkpt>
      <trkpt lat="42.4287" lon="0.10305">
        <ele>562.4</ele>
        <time>2016-07-24T07:57:13Z</time>
      </trkpt>
      <trkpt lat="42.42871" lon="0.10297">
        <ele>562.7</ele>
        <time>2016-07-24T07:57:14Z</time>
      </trkpt>
      <trkpt lat="42.42874" lon="0.10292">
        <ele>562.9</ele>
        <time>2016-07-24T07:57:15Z</time>
      </trkpt>
      <trkpt lat="42.42874" lon="0.10285">
        <ele>563</ele>
        <time>2016-07-24T07:57:16Z</time>
      </trkpt>
      <trkpt lat="42.42875" lon="0.1028">
        <ele>563.1</ele>
        <time>2016-07-24T07:57:17Z</time>
      </trkpt>
      <trkpt lat="42.42876" lon="0.10273">
        <ele>563.2</ele>
        <time>2016-07-24T07:57:18Z</time>
      </trkpt>
      <trkpt lat="42.42877" lon="0.10266">
        <ele>563.2</ele>
        <time>2016-07-24T07:57:19Z</time>
      </trkpt>
      <trkpt lat="42.42876" lon="0.1026">
        <ele>563.4</ele>
        <time>2016-07-24T07:57:20Z</time>
      </trkpt>
      <trkpt lat="42.42875" lon="0.10253">
        <ele>563.5</ele>
        <time>2016-07-24T07:57:21Z</time>
      </trkpt>
      <trkpt lat="42.42876" lon="0.10248">
        <ele>563.5</ele>
        <time>2016-07-24T07:57:22Z</time>
      </trkpt>
      <trkpt lat="42.42873" lon="0.10243">
        <ele>563.5</ele>
        <time>2016-07-24T07:57:23Z</time>
      </trkpt>
      <trkpt lat="42.42872" lon="0.10237">
        <ele>563.6</ele>
        <time>2016-07-24T07:57:24Z</time>
      </trkpt>
      <trkpt lat="42.42869" lon="0.10232">
        <ele>563.5</ele>
        <time>2016-07-24T07:57:25Z</time>
      </trkpt>
      <trkpt lat="42.42866" lon="0.10229">
        <ele>563.5</ele>
        <time>2016-07-24T07:57:26Z</time>
      </trkpt>
      <trkpt lat="42.42863" lon="0.10226">
        <ele>563.4</ele>
        <time>2016-07-24T07:57:27Z</time>
      </trkpt>
      <trkpt lat="42.4286" lon="0.10223">
        <ele>563.4</ele>
        <time>2016-07-24T07:57:28Z</time>
      </trkpt>
      <trkpt lat="42.42857" lon="0.1022">
        <ele>563.4</ele>
        <time>2016-07-24T07:57:29Z</time>
      </trkpt>
      <trkpt lat="42.42856" lon="0.10215">
        <ele>563.4</ele>
        <time>2016-07-24T07:57:30Z</time>
      </trkpt>
      <trkpt lat="42.42855" lon="0.1021">
        <ele>563.5</ele>
        <time>2016-07-24T07:57:31Z</time>
      </trkpt>
      <trkpt lat="42.42855" lon="0.10202">
        <ele>563.5</ele>
        <time>2016-07-24T07:57:32Z</time>
      </trkpt>
      <trkpt lat="42.42857" lon="0.10195">
        <ele>563.4</ele>
        <time>2016-07-24T07:57:33Z</time>
      </trkpt>
      <trkpt lat="42.42857" lon="0.10189">
        <ele>563.4</ele>
        <time>2016-07-24T07:57:34Z</time>
      </trkpt>
      <trkpt lat="42.4286" lon="0.10181">
        <ele>563.3</ele>
        <time>2016-07-24T07:57:35Z</time>
      </trkpt>
      <trkpt lat="42.4286" lon="0.10174">
        <ele>563.2</ele>
        <time>2016-07-24T07:57:36Z</time>
      </trkpt>
      <trkpt lat="42.42861" lon="0.10167">
        <ele>563.1</ele>
        <time>2016-07-24T07:57:37Z</time>
      </trkpt>
      <trkpt lat="42.4286" lon="0.1016">
        <ele>563</ele>
        <time>2016-07-24T07:57:38Z</time>
      </trkpt>
      <trkpt lat="42.42859" lon="0.10154">
        <ele>562.9</ele>
        <time>2016-07-24T07:57:39Z</time>
      </trkpt>
      <trkpt lat="42.42856" lon="0.10146">
        <ele>562.9</ele>
        <time>2016-07-24T07:57:40Z</time>
      </trkpt>
      <trkpt lat="42.42855" lon="0.10141">
        <ele>562.9</ele>
        <time>2016-07-24T07:57:41Z</time>
      </trkpt>
      <trkpt lat="42.42853" lon="0.10137">
        <ele>562.9</ele>
        <time>2016-07-24T07:57:42Z</time>
      </trkpt>
      <trkpt lat="42.4285" lon="0.10134">
        <ele>562.9</ele>
        <time>2016-07-24T07:57:43Z</time>
      </trkpt>
      <trkpt lat="42.42846" lon="0.10131">
        <ele>563.1</ele>
        <time>2016-07-24T07:57:44Z</time>
      </trkpt>
      <trkpt lat="42.42843" lon="0.10127">
        <ele>563.2</ele>
        <time>2016-07-24T07:57:45Z</time>
      </trkpt>
      <trkpt lat="42.42838" lon="0.10121">
        <ele>563.3</ele>
        <time>2016-07-24T07:57:46Z</time>
      </trkpt>
      <trkpt lat="42.42835" lon="0.10114">
        <ele>563.4</ele>
        <time>2016-07-24T07:57:47Z</time>
      </trkpt>
      <trkpt lat="42.42833" lon="0.10107">
        <ele>563.4</ele>
        <time>2016-07-24T07:57:48Z</time>
      </trkpt>
      <trkpt lat="42.42833" lon="0.101">
        <ele>563.4</ele>
        <time>2016-07-24T07:57:49Z</time>
      </trkpt>
      <trkpt lat="42.42832" lon="0.10092">
        <ele>563.3</ele>
        <time>2016-07-24T07:57:50Z</time>
      </trkpt>
      <trkpt lat="42.42831" lon="0.10085">
        <ele>563.4</ele>
        <time>2016-07-24T07:57:51Z</time>
      </trkpt>
      <trkpt lat="42.42829" lon="0.10078">
        <ele>563.4</ele>
        <time>2016-07-24T07:57:52Z</time>
      </trkpt>
      <trkpt lat="42.42828" lon="0.1007">
        <ele>563.4</ele>
        <time>2016-07-24T07:57:53Z</time>
      </trkpt>
      <trkpt lat="42.42827" lon="0.10062">
        <ele>563.4</ele>
        <time>2016-07-24T07:57:54Z</time>
      </trkpt>
      <trkpt lat="42.42826" lon="0.10054">
        <ele>563.4</ele>
        <time>2016-07-24T07:57:55Z</time>
      </trkpt>
      <trkpt lat="42.42825" lon="0.10048">
        <ele>563.4</ele>
        <time>2016-07-24T07:57:56Z</time>
      </trkpt>
      <trkpt lat="42.42824" lon="0.1004">
        <ele>563.5</ele>
        <time>2016-07-24T07:57:57Z</time>
      </trkpt>
      <trkpt lat="42.42823" lon="0.10033">
        <ele>563.6</ele>
        <time>2016-07-24T07:57:58Z</time>
      </trkpt>
      <trkpt lat="42.42823" lon="0.10026">
        <ele>563.7</ele>
        <time>2016-07-24T07:57:59Z</time>
      </trkpt>
      <trkpt lat="42.42824" lon="0.10018">
        <ele>563.8</ele>
        <time>2016-07-24T07:58:00Z</time>
      </trkpt>
      <trkpt lat="42.42824" lon="0.1001">
        <ele>563.8</ele>
        <time>2016-07-24T07:58:01Z</time>
      </trkpt>
      <trkpt lat="42.42824" lon="0.10004">
        <ele>563.9</ele>
        <time>2016-07-24T07:58:02Z</time>
      </trkpt>
      <trkpt lat="42.42824" lon="0.09996">
        <ele>564</ele>
        <time>2016-07-24T07:58:03Z</time>
      </trkpt>
      <trkpt lat="42.42824" lon="0.09989">
        <ele>564.1</ele>
        <time>2016-07-24T07:58:04Z</time>
      </trkpt>
      <trkpt lat="42.42823" lon="0.09981">
        <ele>564.2</ele>
        <time>2016-07-24T07:58:05Z</time>
      </trkpt>
      <trkpt lat="42.42824" lon="0.09974">
        <ele>564.2</ele>
        <time>2016-07-24T07:58:06Z</time>
      </trkpt>
      <trkpt lat="42.42824" lon="0.09968">
        <ele>564.3</ele>
        <time>2016-07-24T07:58:07Z</time>
      </trkpt>
      <trkpt lat="42.42823" lon="0.09962">
        <ele>564.5</ele>
        <time>2016-07-24T07:58:08Z</time>
      </trkpt>
      <trkpt lat="42.4282" lon="0.09954">
        <ele>564.7</ele>
        <time>2016-07-24T07:58:09Z</time>
      </trkpt>
      <trkpt lat="42.4282" lon="0.09948">
        <ele>564.7</ele>
        <time>2016-07-24T07:58:10Z</time>
      </trkpt>
      <trkpt lat="42.42818" lon="0.09941">
        <ele>564.9</ele>
        <time>2016-07-24T07:58:11Z</time>
      </trkpt>
      <trkpt lat="42.42817" lon="0.09934">
        <ele>565</ele>
        <time>2016-07-24T07:58:12Z</time>
      </trkpt>
      <trkpt lat="42.42816" lon="0.09926">
        <ele>565.1</ele>
        <time>2016-07-24T07:58:13Z</time>
      </trkpt>
      <trkpt lat="42.42816" lon="0.09918">
        <ele>565.1</ele>
        <time>2016-07-24T07:58:14Z</time>
      </trkpt>
      <trkpt lat="42.42817" lon="0.0991">
        <ele>565.2</ele>
        <time>2016-07-24T07:58:15Z</time>
      </trkpt>
      <trkpt lat="42.42815" lon="0.09904">
        <ele>565.2</ele>
        <time>2016-07-24T07:58:16Z</time>
      </trkpt>
      <trkpt lat="42.42815" lon="0.09897">
        <ele>565.3</ele>
        <time>2016-07-24T07:58:17Z</time>
      </trkpt>
      <trkpt lat="42.42815" lon="0.09889">
        <ele>565.3</ele>
        <time>2016-07-24T07:58:18Z</time>
      </trkpt>
      <trkpt lat="42.42815" lon="0.09882">
        <ele>565.4</ele>
        <time>2016-07-24T07:58:19Z</time>
      </trkpt>
      <trkpt lat="42.42816" lon="0.09875">
        <ele>565.4</ele>
        <time>2016-07-24T07:58:20Z</time>
      </trkpt>
      <trkpt lat="42.42816" lon="0.09867">
        <ele>565.6</ele>
        <time>2016-07-24T07:58:21Z</time>
      </trkpt>
      <trkpt lat="42.42815" lon="0.0986">
        <ele>565.7</ele>
        <time>2016-07-24T07:58:22Z</time>
      </trkpt>
      <trkpt lat="42.42815" lon="0.09852">
        <ele>565.9</ele>
        <time>2016-07-24T07:58:23Z</time>
      </trkpt>
      <trkpt lat="42.42814" lon="0.09845">
        <ele>566</ele>
        <time>2016-07-24T07:58:24Z</time>
      </trkpt>
      <trkpt lat="42.42812" lon="0.09837">
        <ele>566.2</ele>
        <time>2016-07-24T07:58:25Z</time>
      </trkpt>
      <trkpt lat="42.42812" lon="0.0983">
        <ele>566.3</ele>
        <time>2016-07-24T07:58:26Z</time>
      </trkpt>
      <trkpt lat="42.42811" lon="0.09823">
        <ele>566.4</ele>
        <time>2016-07-24T07:58:27Z</time>
      </trkpt>
      <trkpt lat="42.42811" lon="0.09818">
        <ele>566.5</ele>
        <time>2016-07-24T07:58:28Z</time>
      </trkpt>
      <trkpt lat="42.42811" lon="0.09812">
        <ele>566.6</ele>
        <time>2016-07-24T07:58:29Z</time>
      </trkpt>
      <trkpt lat="42.42811" lon="0.09805">
        <ele>566.8</ele>
        <time>2016-07-24T07:58:30Z</time>
      </trkpt>
      <trkpt lat="42.42811" lon="0.098">
        <ele>566.9</ele>
        <time>2016-07-24T07:58:31Z</time>
      </trkpt>
      <trkpt lat="42.42808" lon="0.09793">
        <ele>567</ele>
        <time>2016-07-24T07:58:32Z</time>
      </trkpt>
      <trkpt lat="42.42804" lon="0.09788">
        <ele>567.1</ele>
        <time>2016-07-24T07:58:33Z</time>
      </trkpt>
      <trkpt lat="42.42802" lon="0.09781">
        <ele>567.3</ele>
        <time>2016-07-24T07:58:34Z</time>
      </trkpt>
      <trkpt lat="42.42793" lon="0.09776">
        <ele>567.5</ele>
        <time>2016-07-24T07:58:35Z</time>
      </trkpt>
      <trkpt lat="42.42796" lon="0.09768">
        <ele>567.8</ele>
        <time>2016-07-24T07:58:36Z</time>
      </trkpt>
      <trkpt lat="42.42796" lon="0.09763">
        <ele>567.9</ele>
        <time>2016-07-24T07:58:37Z</time>
      </trkpt>
      <trkpt lat="42.428" lon="0.09758">
        <ele>568</ele>
        <time>2016-07-24T07:58:38Z</time>
      </trkpt>
      <trkpt lat="42.428" lon="0.09755">
        <ele>568.1</ele>
        <time>2016-07-24T07:58:39Z</time>
      </trkpt>
      <trkpt lat="42.42807" lon="0.09747">
        <ele>568.1</ele>
        <time>2016-07-24T07:58:40Z</time>
      </trkpt>
      <trkpt lat="42.42809" lon="0.09742">
        <ele>568.2</ele>
        <time>2016-07-24T07:58:41Z</time>
      </trkpt>
      <trkpt lat="42.42811" lon="0.09736">
        <ele>568.2</ele>
        <time>2016-07-24T07:58:42Z</time>
      </trkpt>
      <trkpt lat="42.42812" lon="0.09731">
        <ele>568.3</ele>
        <time>2016-07-24T07:58:43Z</time>
      </trkpt>
      <trkpt lat="42.42813" lon="0.09727">
        <ele>568.3</ele>
        <time>2016-07-24T07:58:44Z</time>
      </trkpt>
      <trkpt lat="42.42814" lon="0.09721">
        <ele>568.4</ele>
        <time>2016-07-24T07:58:45Z</time>
      </trkpt>
      <trkpt lat="42.42815" lon="0.09713">
        <ele>568.5</ele>
        <time>2016-07-24T07:58:46Z</time>
      </trkpt>
      <trkpt lat="42.42815" lon="0.09706">
        <ele>568.6</ele>
        <time>2016-07-24T07:58:47Z</time>
      </trkpt>
      <trkpt lat="42.42813" lon="0.09701">
        <ele>568.8</ele>
        <time>2016-07-24T07:58:48Z</time>
      </trkpt>
      <trkpt lat="42.42812" lon="0.09695">
        <ele>568.9</ele>
        <time>2016-07-24T07:58:49Z</time>
      </trkpt>
      <trkpt lat="42.42812" lon="0.09689">
        <ele>569</ele>
        <time>2016-07-24T07:58:50Z</time>
      </trkpt>
      <trkpt lat="42.42811" lon="0.09682">
        <ele>569.1</ele>
        <time>2016-07-24T07:58:51Z</time>
      </trkpt>
      <trkpt lat="42.4281" lon="0.09678">
        <ele>569.2</ele>
        <time>2016-07-24T07:58:52Z</time>
      </trkpt>
      <trkpt lat="42.42808" lon="0.09674">
        <ele>569.4</ele>
        <time>2016-07-24T07:58:53Z</time>
      </trkpt>
      <trkpt lat="42.42807" lon="0.09669">
        <ele>569.5</ele>
        <time>2016-07-24T07:58:54Z</time>
      </trkpt>
      <trkpt lat="42.42805" lon="0.09662">
        <ele>569.7</ele>
        <time>2016-07-24T07:58:55Z</time>
      </trkpt>
      <trkpt lat="42.42804" lon="0.09656">
        <ele>569.8</ele>
        <time>2016-07-24T07:58:56Z</time>
      </trkpt>
      <trkpt lat="42.42803" lon="0.09649">
        <ele>570</ele>
        <time>2016-07-24T07:58:57Z</time>
      </trkpt>
      <trkpt lat="42.42801" lon="0.09644">
        <ele>570.1</ele>
        <time>2016-07-24T07:58:58Z</time>
      </trkpt>
      <trkpt lat="42.428" lon="0.09638">
        <ele>570.3</ele>
        <time>2016-07-24T07:58:59Z</time>
      </trkpt>
      <trkpt lat="42.42798" lon="0.09632">
        <ele>570.5</ele>
        <time>2016-07-24T07:59:00Z</time>
      </trkpt>
      <trkpt lat="42.42796" lon="0.09624">
        <ele>570.7</ele>
        <time>2016-07-24T07:59:02Z</time>
      </trkpt>
      <trkpt lat="42.42793" lon="0.0962">
        <ele>571.1</ele>
        <time>2016-07-24T07:59:03Z</time>
      </trkpt>
      <trkpt lat="42.42791" lon="0.09615">
        <ele>571.5</ele>
        <time>2016-07-24T07:59:04Z</time>
      </trkpt>
      <trkpt lat="42.42789" lon="0.0961">
        <ele>572.3</ele>
        <time>2016-07-24T07:59:05Z</time>
      </trkpt>
      <trkpt lat="42.42787" lon="0.09604">
        <ele>573.1</ele>
        <time>2016-07-24T07:59:06Z</time>
      </trkpt>
      <trkpt lat="42.42786" lon="0.09599">
        <ele>573.6</ele>
        <time>2016-07-24T07:59:07Z</time>
      </trkpt>
      <trkpt lat="42.42786" lon="0.09593">
        <ele>573.9</ele>
        <time>2016-07-24T07:59:08Z</time>
      </trkpt>
      <trkpt lat="42.42787" lon="0.09588">
        <ele>573.7</ele>
        <time>2016-07-24T07:59:09Z</time>
      </trkpt>
      <trkpt lat="42.42786" lon="0.09581">
        <ele>574.1</ele>
        <time>2016-07-24T07:59:10Z</time>
      </trkpt>
      <trkpt lat="42.42786" lon="0.09574">
        <ele>574.5</ele>
        <time>2016-07-24T07:59:11Z</time>
      </trkpt>
      <trkpt lat="42.42785" lon="0.09568">
        <ele>575</ele>
        <time>2016-07-24T07:59:12Z</time>
      </trkpt>
      <trkpt lat="42.42784" lon="0.0956">
        <ele>575.7</ele>
        <time>2016-07-24T07:59:13Z</time>
      </trkpt>
      <trkpt lat="42.42782" lon="0.09553">
        <ele>576.4</ele>
        <time>2016-07-24T07:59:14Z</time>
      </trkpt>
      <trkpt lat="42.42781" lon="0.09545">
        <ele>577.3</ele>
        <time>2016-07-24T07:59:15Z</time>
      </trkpt>
      <trkpt lat="42.4278" lon="0.09538">
        <ele>577.9</ele>
        <time>2016-07-24T07:59:16Z</time>
      </trkpt>
      <trkpt lat="42.42778" lon="0.09531">
        <ele>578.7</ele>
        <time>2016-07-24T07:59:17Z</time>
      </trkpt>
      <trkpt lat="42.42777" lon="0.09523">
        <ele>579.3</ele>
        <time>2016-07-24T07:59:18Z</time>
      </trkpt>
      <trkpt lat="42.42776" lon="0.09516">
        <ele>580.1</ele>
        <time>2016-07-24T07:59:19Z</time>
      </trkpt>
      <trkpt lat="42.42775" lon="0.09508">
        <ele>580.7</ele>
        <time>2016-07-24T07:59:20Z</time>
      </trkpt>
      <trkpt lat="42.42774" lon="0.09503">
        <ele>581.2</ele>
        <time>2016-07-24T07:59:21Z</time>
      </trkpt>
      <trkpt lat="42.42773" lon="0.09496">
        <ele>581.7</ele>
        <time>2016-07-24T07:59:22Z</time>
      </trkpt>
      <trkpt lat="42.42773" lon="0.09492">
        <ele>581.8</ele>
        <time>2016-07-24T07:59:23Z</time>
      </trkpt>
      <trkpt lat="42.42772" lon="0.09485">
        <ele>582.5</ele>
        <time>2016-07-24T07:59:24Z</time>
      </trkpt>
      <trkpt lat="42.42776" lon="0.09479">
        <ele>581.6</ele>
        <time>2016-07-24T07:59:25Z</time>
      </trkpt>
      <trkpt lat="42.42776" lon="0.09472">
        <ele>581.9</ele>
        <time>2016-07-24T07:59:26Z</time>
      </trkpt>
      <trkpt lat="42.42775" lon="0.09466">
        <ele>582.4</ele>
        <time>2016-07-24T07:59:27Z</time>
      </trkpt>
      <trkpt lat="42.42773" lon="0.0946">
        <ele>583.3</ele>
        <time>2016-07-24T07:59:28Z</time>
      </trkpt>
      <trkpt lat="42.42772" lon="0.09453">
        <ele>583.7</ele>
        <time>2016-07-24T07:59:29Z</time>
      </trkpt>
      <trkpt lat="42.42772" lon="0.09447">
        <ele>584.1</ele>
        <time>2016-07-24T07:59:30Z</time>
      </trkpt>
      <trkpt lat="42.42771" lon="0.0944">
        <ele>584.5</ele>
        <time>2016-07-24T07:59:31Z</time>
      </trkpt>
      <trkpt lat="42.42772" lon="0.09433">
        <ele>584.5</ele>
        <time>2016-07-24T07:59:32Z</time>
      </trkpt>
      <trkpt lat="42.42773" lon="0.09426">
        <ele>584.2</ele>
        <time>2016-07-24T07:59:33Z</time>
      </trkpt>
      <trkpt lat="42.42773" lon="0.09419">
        <ele>584.6</ele>
        <time>2016-07-24T07:59:34Z</time>
      </trkpt>
      <trkpt lat="42.42773" lon="0.09412">
        <ele>585</ele>
        <time>2016-07-24T07:59:35Z</time>
      </trkpt>
      <trkpt lat="42.42773" lon="0.09406">
        <ele>585.1</ele>
        <time>2016-07-24T07:59:36Z</time>
      </trkpt>
      <trkpt lat="42.42772" lon="0.094">
        <ele>585.6</ele>
        <time>2016-07-24T07:59:37Z</time>
      </trkpt>
      <trkpt lat="42.42772" lon="0.09394">
        <ele>586.1</ele>
        <time>2016-07-24T07:59:38Z</time>
      </trkpt>
      <trkpt lat="42.42772" lon="0.09385">
        <ele>586.2</ele>
        <time>2016-07-24T07:59:40Z</time>
      </trkpt>
      <trkpt lat="42.42772" lon="0.0938">
        <ele>586.4</ele>
        <time>2016-07-24T07:59:41Z</time>
      </trkpt>
      <trkpt lat="42.42772" lon="0.09374">
        <ele>586.5</ele>
        <time>2016-07-24T07:59:42Z</time>
      </trkpt>
      <trkpt lat="42.42773" lon="0.09367">
        <ele>586.7</ele>
        <time>2016-07-24T07:59:43Z</time>
      </trkpt>
      <trkpt lat="42.42774" lon="0.09361">
        <ele>586.5</ele>
        <time>2016-07-24T07:59:44Z</time>
      </trkpt>
      <trkpt lat="42.42775" lon="0.09355">
        <ele>586.5</ele>
        <time>2016-07-24T07:59:45Z</time>
      </trkpt>
      <trkpt lat="42.42775" lon="0.09349">
        <ele>586.7</ele>
        <time>2016-07-24T07:59:46Z</time>
      </trkpt>
      <trkpt lat="42.42775" lon="0.09342">
        <ele>586.8</ele>
        <time>2016-07-24T07:59:47Z</time>
      </trkpt>
      <trkpt lat="42.42776" lon="0.09335">
        <ele>587</ele>
        <time>2016-07-24T07:59:48Z</time>
      </trkpt>
      <trkpt lat="42.42775" lon="0.09331">
        <ele>587.3</ele>
        <time>2016-07-24T07:59:49Z</time>
      </trkpt>
      <trkpt lat="42.42776" lon="0.09325">
        <ele>587.2</ele>
        <time>2016-07-24T07:59:50Z</time>
      </trkpt>
      <trkpt lat="42.42778" lon="0.09318">
        <ele>586.9</ele>
        <time>2016-07-24T07:59:51Z</time>
      </trkpt>
      <trkpt lat="42.42781" lon="0.0931">
        <ele>586</ele>
        <time>2016-07-24T07:59:52Z</time>
      </trkpt>
      <trkpt lat="42.42783" lon="0.09305">
        <ele>585.6</ele>
        <time>2016-07-24T07:59:53Z</time>
      </trkpt>
      <trkpt lat="42.42786" lon="0.09299">
        <ele>585</ele>
        <time>2016-07-24T07:59:54Z</time>
      </trkpt>
      <trkpt lat="42.4279" lon="0.09292">
        <ele>583.5</ele>
        <time>2016-07-24T07:59:55Z</time>
      </trkpt>
      <trkpt lat="42.42793" lon="0.09286">
        <ele>583.3</ele>
        <time>2016-07-24T07:59:56Z</time>
      </trkpt>
      <trkpt lat="42.42797" lon="0.09279">
        <ele>583.3</ele>
        <time>2016-07-24T07:59:57Z</time>
      </trkpt>
      <trkpt lat="42.42801" lon="0.09273">
        <ele>583.2</ele>
        <time>2016-07-24T07:59:58Z</time>
      </trkpt>
      <trkpt lat="42.42805" lon="0.09265">
        <ele>583.3</ele>
        <time>2016-07-24T07:59:59Z</time>
      </trkpt>
      <trkpt lat="42.42809" lon="0.09259">
        <ele>583</ele>
        <time>2016-07-24T08:00:00Z</time>
      </trkpt>
      <trkpt lat="42.42812" lon="0.09252">
        <ele>582.8</ele>
        <time>2016-07-24T08:00:01Z</time>
      </trkpt>
      <trkpt lat="42.42815" lon="0.09244">
        <ele>582.9</ele>
        <time>2016-07-24T08:00:02Z</time>
      </trkpt>
      <trkpt lat="42.42818" lon="0.0924">
        <ele>582.8</ele>
        <time>2016-07-24T08:00:03Z</time>
      </trkpt>
      <trkpt lat="42.42821" lon="0.09235">
        <ele>582.4</ele>
        <time>2016-07-24T08:00:04Z</time>
      </trkpt>
      <trkpt lat="42.42826" lon="0.09229">
        <ele>581.7</ele>
        <time>2016-07-24T08:00:05Z</time>
      </trkpt>
      <trkpt lat="42.42831" lon="0.09223">
        <ele>581</ele>
        <time>2016-07-24T08:00:06Z</time>
      </trkpt>
      <trkpt lat="42.42835" lon="0.09219">
        <ele>580.3</ele>
        <time>2016-07-24T08:00:07Z</time>
      </trkpt>
      <trkpt lat="42.42838" lon="0.09214">
        <ele>579.9</ele>
        <time>2016-07-24T08:00:08Z</time>
      </trkpt>
      <trkpt lat="42.42842" lon="0.09208">
        <ele>579.5</ele>
        <time>2016-07-24T08:00:09Z</time>
      </trkpt>
      <trkpt lat="42.42845" lon="0.09202">
        <ele>579</ele>
        <time>2016-07-24T08:00:10Z</time>
      </trkpt>
      <trkpt lat="42.42848" lon="0.09197">
        <ele>578.4</ele>
        <time>2016-07-24T08:00:11Z</time>
      </trkpt>
      <trkpt lat="42.42852" lon="0.0919">
        <ele>577.6</ele>
        <time>2016-07-24T08:00:12Z</time>
      </trkpt>
      <trkpt lat="42.42856" lon="0.09184">
        <ele>576.8</ele>
        <time>2016-07-24T08:00:13Z</time>
      </trkpt>
      <trkpt lat="42.4286" lon="0.09178">
        <ele>575.9</ele>
        <time>2016-07-24T08:00:14Z</time>
      </trkpt>
      <trkpt lat="42.42864" lon="0.09173">
        <ele>575</ele>
        <time>2016-07-24T08:00:15Z</time>
      </trkpt>
      <trkpt lat="42.42867" lon="0.09166">
        <ele>574.4</ele>
        <time>2016-07-24T08:00:16Z</time>
      </trkpt>
      <trkpt lat="42.42871" lon="0.0916">
        <ele>573.4</ele>
        <time>2016-07-24T08:00:17Z</time>
      </trkpt>
      <trkpt lat="42.42875" lon="0.09154">
        <ele>572.3</ele>
        <time>2016-07-24T08:00:18Z</time>
      </trkpt>
      <trkpt lat="42.42879" lon="0.09149">
        <ele>572.2</ele>
        <time>2016-07-24T08:00:19Z</time>
      </trkpt>
      <trkpt lat="42.42883" lon="0.09144">
        <ele>572.1</ele>
        <time>2016-07-24T08:00:20Z</time>
      </trkpt>
      <trkpt lat="42.42888" lon="0.09139">
        <ele>572.1</ele>
        <time>2016-07-24T08:00:21Z</time>
      </trkpt>
      <trkpt lat="42.42891" lon="0.09133">
        <ele>572</ele>
        <time>2016-07-24T08:00:22Z</time>
      </trkpt>
      <trkpt lat="42.42895" lon="0.09126">
        <ele>572</ele>
        <time>2016-07-24T08:00:23Z</time>
      </trkpt>
      <trkpt lat="42.42899" lon="0.09121">
        <ele>572</ele>
        <time>2016-07-24T08:00:24Z</time>
      </trkpt>
      <trkpt lat="42.42904" lon="0.09116">
        <ele>571.9</ele>
        <time>2016-07-24T08:00:25Z</time>
      </trkpt>
      <trkpt lat="42.42908" lon="0.09112">
        <ele>571.8</ele>
        <time>2016-07-24T08:00:26Z</time>
      </trkpt>
      <trkpt lat="42.42913" lon="0.09108">
        <ele>571.7</ele>
        <time>2016-07-24T08:00:27Z</time>
      </trkpt>
      <trkpt lat="42.42917" lon="0.09105">
        <ele>571.6</ele>
        <time>2016-07-24T08:00:28Z</time>
      </trkpt>
      <trkpt lat="42.42921" lon="0.09101">
        <ele>571.5</ele>
        <time>2016-07-24T08:00:29Z</time>
      </trkpt>
      <trkpt lat="42.42927" lon="0.09097">
        <ele>571.3</ele>
        <time>2016-07-24T08:00:30Z</time>
      </trkpt>
      <trkpt lat="42.42932" lon="0.09093">
        <ele>571.1</ele>
        <time>2016-07-24T08:00:31Z</time>
      </trkpt>
      <trkpt lat="42.42937" lon="0.09089">
        <ele>571</ele>
        <time>2016-07-24T08:00:32Z</time>
      </trkpt>
      <trkpt lat="42.42942" lon="0.09086">
        <ele>570.8</ele>
        <time>2016-07-24T08:00:33Z</time>
      </trkpt>
      <trkpt lat="42.42946" lon="0.0908">
        <ele>570.8</ele>
        <time>2016-07-24T08:00:34Z</time>
      </trkpt>
      <trkpt lat="42.42949" lon="0.09073">
        <ele>570.8</ele>
        <time>2016-07-24T08:00:35Z</time>
      </trkpt>
      <trkpt lat="42.42954" lon="0.09067">
        <ele>570.7</ele>
        <time>2016-07-24T08:00:36Z</time>
      </trkpt>
      <trkpt lat="42.42958" lon="0.09059">
        <ele>570.6</ele>
        <time>2016-07-24T08:00:37Z</time>
      </trkpt>
      <trkpt lat="42.42963" lon="0.09055">
        <ele>570.5</ele>
        <time>2016-07-24T08:00:38Z</time>
      </trkpt>
      <trkpt lat="42.42968" lon="0.0905">
        <ele>570.5</ele>
        <time>2016-07-24T08:00:39Z</time>
      </trkpt>
      <trkpt lat="42.42972" lon="0.09044">
        <ele>570.5</ele>
        <time>2016-07-24T08:00:40Z</time>
      </trkpt>
      <trkpt lat="42.42975" lon="0.09039">
        <ele>570.4</ele>
        <time>2016-07-24T08:00:41Z</time>
      </trkpt>
      <trkpt lat="42.42979" lon="0.09034">
        <ele>570.2</ele>
        <time>2016-07-24T08:00:42Z</time>
      </trkpt>
      <trkpt lat="42.42984" lon="0.09028">
        <ele>570.1</ele>
        <time>2016-07-24T08:00:43Z</time>
      </trkpt>
      <trkpt lat="42.42988" lon="0.09023">
        <ele>569.9</ele>
        <time>2016-07-24T08:00:44Z</time>
      </trkpt>
      <trkpt lat="42.42993" lon="0.09018">
        <ele>569.8</ele>
        <time>2016-07-24T08:00:45Z</time>
      </trkpt>
      <trkpt lat="42.42996" lon="0.09012">
        <ele>569.7</ele>
        <time>2016-07-24T08:00:46Z</time>
      </trkpt>
      <trkpt lat="42.42999" lon="0.09005">
        <ele>569.5</ele>
        <time>2016-07-24T08:00:47Z</time>
      </trkpt>
      <trkpt lat="42.43003" lon="0.08999">
        <ele>569.4</ele>
        <time>2016-07-24T08:00:48Z</time>
      </trkpt>
      <trkpt lat="42.43006" lon="0.08993">
        <ele>569.3</ele>
        <time>2016-07-24T08:00:49Z</time>
      </trkpt>
      <trkpt lat="42.43011" lon="0.08987">
        <ele>569.1</ele>
        <time>2016-07-24T08:00:50Z</time>
      </trkpt>
      <trkpt lat="42.43014" lon="0.0898">
        <ele>569</ele>
        <time>2016-07-24T08:00:51Z</time>
      </trkpt>
      <trkpt lat="42.43019" lon="0.08973">
        <ele>568.8</ele>
        <time>2016-07-24T08:00:52Z</time>
      </trkpt>
      <trkpt lat="42.43021" lon="0.08966">
        <ele>568.7</ele>
        <time>2016-07-24T08:00:53Z</time>
      </trkpt>
      <trkpt lat="42.43024" lon="0.0896">
        <ele>568.6</ele>
        <time>2016-07-24T08:00:54Z</time>
      </trkpt>
      <trkpt lat="42.43027" lon="0.08953">
        <ele>568.7</ele>
        <time>2016-07-24T08:00:55Z</time>
      </trkpt>
      <trkpt lat="42.4303" lon="0.08946">
        <ele>568.8</ele>
        <time>2016-07-24T08:00:56Z</time>
      </trkpt>
      <trkpt lat="42.43033" lon="0.0894">
        <ele>569</ele>
        <time>2016-07-24T08:00:57Z</time>
      </trkpt>
      <trkpt lat="42.43036" lon="0.08934">
        <ele>569.1</ele>
        <time>2016-07-24T08:00:58Z</time>
      </trkpt>
      <trkpt lat="42.43039" lon="0.08928">
        <ele>569.2</ele>
        <time>2016-07-24T08:00:59Z</time>
      </trkpt>
      <trkpt lat="42.43041" lon="0.08921">
        <ele>569.3</ele>
        <time>2016-07-24T08:01:00Z</time>
      </trkpt>
      <trkpt lat="42.43045" lon="0.08915">
        <ele>569.6</ele>
        <time>2016-07-24T08:01:01Z</time>
      </trkpt>
      <trkpt lat="42.43047" lon="0.08909">
        <ele>569.8</ele>
        <time>2016-07-24T08:01:02Z</time>
      </trkpt>
      <trkpt lat="42.4305" lon="0.08903">
        <ele>570.1</ele>
        <time>2016-07-24T08:01:03Z</time>
      </trkpt>
      <trkpt lat="42.43053" lon="0.08896">
        <ele>570.3</ele>
        <time>2016-07-24T08:01:04Z</time>
      </trkpt>
      <trkpt lat="42.43056" lon="0.08889">
        <ele>570.5</ele>
        <time>2016-07-24T08:01:05Z</time>
      </trkpt>
      <trkpt lat="42.43058" lon="0.08883">
        <ele>570.7</ele>
        <time>2016-07-24T08:01:06Z</time>
      </trkpt>
      <trkpt lat="42.4306" lon="0.08875">
        <ele>571</ele>
        <time>2016-07-24T08:01:07Z</time>
      </trkpt>
      <trkpt lat="42.43062" lon="0.0887">
        <ele>571</ele>
        <time>2016-07-24T08:01:08Z</time>
      </trkpt>
      <trkpt lat="42.43062" lon="0.08863">
        <ele>571.1</ele>
        <time>2016-07-24T08:01:09Z</time>
      </trkpt>
      <trkpt lat="42.43066" lon="0.08861">
        <ele>571.1</ele>
        <time>2016-07-24T08:01:10Z</time>
      </trkpt>
      <trkpt lat="42.43068" lon="0.08857">
        <ele>571.1</ele>
        <time>2016-07-24T08:01:11Z</time>
      </trkpt>
      <trkpt lat="42.43071" lon="0.08854">
        <ele>571.2</ele>
        <time>2016-07-24T08:01:12Z</time>
      </trkpt>
      <trkpt lat="42.43073" lon="0.0885">
        <ele>571.2</ele>
        <time>2016-07-24T08:01:13Z</time>
      </trkpt>
      <trkpt lat="42.43075" lon="0.08847">
        <ele>571.2</ele>
        <time>2016-07-24T08:01:14Z</time>
      </trkpt>
      <trkpt lat="42.43078" lon="0.08844">
        <ele>571.2</ele>
        <time>2016-07-24T08:01:15Z</time>
      </trkpt>
      <trkpt lat="42.43081" lon="0.08841">
        <ele>571.2</ele>
        <time>2016-07-24T08:01:16Z</time>
      </trkpt>
      <trkpt lat="42.43084" lon="0.08839">
        <ele>571.2</ele>
        <time>2016-07-24T08:01:18Z</time>
      </trkpt>
      <trkpt lat="42.43088" lon="0.08836">
        <ele>571.2</ele>
        <time>2016-07-24T08:01:20Z</time>
      </trkpt>
      <trkpt lat="42.43092" lon="0.08833">
        <ele>571.2</ele>
        <time>2016-07-24T08:01:22Z</time>
      </trkpt>
      <trkpt lat="42.43096" lon="0.0883">
        <ele>571.2</ele>
        <time>2016-07-24T08:01:24Z</time>
      </trkpt>
      <trkpt lat="42.43099" lon="0.08826">
        <ele>571.2</ele>
        <time>2016-07-24T08:01:26Z</time>
      </trkpt>
      <trkpt lat="42.43102" lon="0.08821">
        <ele>571.2</ele>
        <time>2016-07-24T08:01:28Z</time>
      </trkpt>
      <trkpt lat="42.43105" lon="0.08816">
        <ele>571.2</ele>
        <time>2016-07-24T08:01:30Z</time>
      </trkpt>
      <trkpt lat="42.43107" lon="0.08813">
        <ele>571.2</ele>
        <time>2016-07-24T08:01:31Z</time>
      </trkpt>
      <trkpt lat="42.43109" lon="0.0881">
        <ele>571.2</ele>
        <time>2016-07-24T08:01:32Z</time>
      </trkpt>
      <trkpt lat="42.4311" lon="0.08806">
        <ele>571.1</ele>
        <time>2016-07-24T08:01:33Z</time>
      </trkpt>
      <trkpt lat="42.43112" lon="0.08801">
        <ele>571.1</ele>
        <time>2016-07-24T08:01:35Z</time>
      </trkpt>
      <trkpt lat="42.43114" lon="0.08797">
        <ele>571.1</ele>
        <time>2016-07-24T08:01:36Z</time>
      </trkpt>
      <trkpt lat="42.43116" lon="0.08794">
        <ele>571.1</ele>
        <time>2016-07-24T08:01:37Z</time>
      </trkpt>
      <trkpt lat="42.43117" lon="0.08789">
        <ele>571.2</ele>
        <time>2016-07-24T08:01:38Z</time>
      </trkpt>
      <trkpt lat="42.4312" lon="0.08785">
        <ele>571.4</ele>
        <time>2016-07-24T08:01:39Z</time>
      </trkpt>
      <trkpt lat="42.43122" lon="0.08781">
        <ele>571.5</ele>
        <time>2016-07-24T08:01:40Z</time>
      </trkpt>
      <trkpt lat="42.43125" lon="0.08777">
        <ele>571.7</ele>
        <time>2016-07-24T08:01:41Z</time>
      </trkpt>
      <trkpt lat="42.43127" lon="0.08773">
        <ele>571.9</ele>
        <time>2016-07-24T08:01:42Z</time>
      </trkpt>
      <trkpt lat="42.43131" lon="0.0877">
        <ele>572.1</ele>
        <time>2016-07-24T08:01:43Z</time>
      </trkpt>
      <trkpt lat="42.43134" lon="0.08766">
        <ele>572.3</ele>
        <time>2016-07-24T08:01:44Z</time>
      </trkpt>
      <trkpt lat="42.43138" lon="0.08763">
        <ele>572.5</ele>
        <time>2016-07-24T08:01:45Z</time>
      </trkpt>
      <trkpt lat="42.43142" lon="0.0876">
        <ele>572.6</ele>
        <time>2016-07-24T08:01:46Z</time>
      </trkpt>
      <trkpt lat="42.43147" lon="0.08758">
        <ele>572.7</ele>
        <time>2016-07-24T08:01:47Z</time>
      </trkpt>
      <trkpt lat="42.43151" lon="0.08757">
        <ele>572.8</ele>
        <time>2016-07-24T08:01:48Z</time>
      </trkpt>
      <trkpt lat="42.43156" lon="0.08756">
        <ele>572.8</ele>
        <time>2016-07-24T08:01:49Z</time>
      </trkpt>
      <trkpt lat="42.4316" lon="0.08754">
        <ele>572.9</ele>
        <time>2016-07-24T08:01:50Z</time>
      </trkpt>
      <trkpt lat="42.43164" lon="0.08753">
        <ele>572.9</ele>
        <time>2016-07-24T08:01:51Z</time>
      </trkpt>
      <trkpt lat="42.43168" lon="0.08752">
        <ele>573</ele>
        <time>2016-07-24T08:01:52Z</time>
      </trkpt>
      <trkpt lat="42.43172" lon="0.08749">
        <ele>573</ele>
        <time>2016-07-24T08:01:53Z</time>
      </trkpt>
      <trkpt lat="42.43176" lon="0.08748">
        <ele>573</ele>
        <time>2016-07-24T08:01:54Z</time>
      </trkpt>
      <trkpt lat="42.4318" lon="0.08743">
        <ele>573.1</ele>
        <time>2016-07-24T08:01:55Z</time>
      </trkpt>
      <trkpt lat="42.43182" lon="0.08738">
        <ele>573.2</ele>
        <time>2016-07-24T08:01:56Z</time>
      </trkpt>
      <trkpt lat="42.43186" lon="0.08733">
        <ele>573.2</ele>
        <time>2016-07-24T08:01:57Z</time>
      </trkpt>
      <trkpt lat="42.43189" lon="0.08727">
        <ele>573.3</ele>
        <time>2016-07-24T08:01:58Z</time>
      </trkpt>
      <trkpt lat="42.43192" lon="0.08722">
        <ele>573.3</ele>
        <time>2016-07-24T08:01:59Z</time>
      </trkpt>
      <trkpt lat="42.43195" lon="0.08716">
        <ele>573.3</ele>
        <time>2016-07-24T08:02:00Z</time>
      </trkpt>
      <trkpt lat="42.43198" lon="0.08711">
        <ele>573.2</ele>
        <time>2016-07-24T08:02:01Z</time>
      </trkpt>
      <trkpt lat="42.43201" lon="0.08706">
        <ele>573.2</ele>
        <time>2016-07-24T08:02:02Z</time>
      </trkpt>
      <trkpt lat="42.43205" lon="0.08701">
        <ele>573.1</ele>
        <time>2016-07-24T08:02:03Z</time>
      </trkpt>
      <trkpt lat="42.43207" lon="0.08696">
        <ele>573</ele>
        <time>2016-07-24T08:02:04Z</time>
      </trkpt>
      <trkpt lat="42.43211" lon="0.08691">
        <ele>573</ele>
        <time>2016-07-24T08:02:05Z</time>
      </trkpt>
      <trkpt lat="42.43213" lon="0.08685">
        <ele>573.1</ele>
        <time>2016-07-24T08:02:06Z</time>
      </trkpt>
      <trkpt lat="42.43216" lon="0.0868">
        <ele>573.1</ele>
        <time>2016-07-24T08:02:07Z</time>
      </trkpt>
      <trkpt lat="42.43219" lon="0.08674">
        <ele>573.1</ele>
        <time>2016-07-24T08:02:08Z</time>
      </trkpt>
      <trkpt lat="42.43222" lon="0.08669">
        <ele>573.2</ele>
        <time>2016-07-24T08:02:09Z</time>
      </trkpt>
      <trkpt lat="42.43226" lon="0.08663">
        <ele>573.2</ele>
        <time>2016-07-24T08:02:10Z</time>
      </trkpt>
      <trkpt lat="42.43229" lon="0.08658">
        <ele>573.2</ele>
        <time>2016-07-24T08:02:11Z</time>
      </trkpt>
      <trkpt lat="42.43231" lon="0.08652">
        <ele>573.3</ele>
        <time>2016-07-24T08:02:12Z</time>
      </trkpt>
      <trkpt lat="42.43234" lon="0.08645">
        <ele>573.3</ele>
        <time>2016-07-24T08:02:13Z</time>
      </trkpt>
      <trkpt lat="42.43237" lon="0.0864">
        <ele>573.3</ele>
        <time>2016-07-24T08:02:14Z</time>
      </trkpt>
      <trkpt lat="42.4324" lon="0.08634">
        <ele>573.4</ele>
        <time>2016-07-24T08:02:15Z</time>
      </trkpt>
      <trkpt lat="42.43243" lon="0.08629">
        <ele>573.4</ele>
        <time>2016-07-24T08:02:16Z</time>
      </trkpt>
      <trkpt lat="42.43246" lon="0.08624">
        <ele>573.5</ele>
        <time>2016-07-24T08:02:17Z</time>
      </trkpt>
      <trkpt lat="42.43249" lon="0.08619">
        <ele>573.6</ele>
        <time>2016-07-24T08:02:18Z</time>
      </trkpt>
      <trkpt lat="42.43251" lon="0.08611">
        <ele>573.8</ele>
        <time>2016-07-24T08:02:19Z</time>
      </trkpt>
      <trkpt lat="42.43254" lon="0.08606">
        <ele>574</ele>
        <time>2016-07-24T08:02:20Z</time>
      </trkpt>
      <trkpt lat="42.43257" lon="0.08602">
        <ele>574.1</ele>
        <time>2016-07-24T08:02:21Z</time>
      </trkpt>
      <trkpt lat="42.4326" lon="0.08597">
        <ele>574.3</ele>
        <time>2016-07-24T08:02:22Z</time>
      </trkpt>
      <trkpt lat="42.43263" lon="0.08592">
        <ele>574.4</ele>
        <time>2016-07-24T08:02:23Z</time>
      </trkpt>
      <trkpt lat="42.43266" lon="0.08587">
        <ele>574.6</ele>
        <time>2016-07-24T08:02:24Z</time>
      </trkpt>
      <trkpt lat="42.43269" lon="0.08582">
        <ele>574.7</ele>
        <time>2016-07-24T08:02:25Z</time>
      </trkpt>
      <trkpt lat="42.43271" lon="0.08577">
        <ele>574.9</ele>
        <time>2016-07-24T08:02:26Z</time>
      </trkpt>
      <trkpt lat="42.43273" lon="0.08571">
        <ele>575.1</ele>
        <time>2016-07-24T08:02:27Z</time>
      </trkpt>
      <trkpt lat="42.43274" lon="0.08564">
        <ele>575.2</ele>
        <time>2016-07-24T08:02:28Z</time>
      </trkpt>
      <trkpt lat="42.43276" lon="0.08559">
        <ele>575.4</ele>
        <time>2016-07-24T08:02:29Z</time>
      </trkpt>
      <trkpt lat="42.43278" lon="0.08554">
        <ele>575.5</ele>
        <time>2016-07-24T08:02:30Z</time>
      </trkpt>
      <trkpt lat="42.43281" lon="0.08549">
        <ele>575.7</ele>
        <time>2016-07-24T08:02:31Z</time>
      </trkpt>
      <trkpt lat="42.43284" lon="0.08544">
        <ele>575.9</ele>
        <time>2016-07-24T08:02:32Z</time>
      </trkpt>
      <trkpt lat="42.43287" lon="0.08537">
        <ele>575.9</ele>
        <time>2016-07-24T08:02:33Z</time>
      </trkpt>
      <trkpt lat="42.43289" lon="0.08533">
        <ele>576</ele>
        <time>2016-07-24T08:02:34Z</time>
      </trkpt>
      <trkpt lat="42.43293" lon="0.08529">
        <ele>576</ele>
        <time>2016-07-24T08:02:35Z</time>
      </trkpt>
      <trkpt lat="42.43296" lon="0.08524">
        <ele>576</ele>
        <time>2016-07-24T08:02:36Z</time>
      </trkpt>
      <trkpt lat="42.43299" lon="0.08521">
        <ele>575.9</ele>
        <time>2016-07-24T08:02:37Z</time>
      </trkpt>
      <trkpt lat="42.43303" lon="0.08516">
        <ele>575.9</ele>
        <time>2016-07-24T08:02:38Z</time>
      </trkpt>
      <trkpt lat="42.43307" lon="0.08512">
        <ele>575.9</ele>
        <time>2016-07-24T08:02:39Z</time>
      </trkpt>
      <trkpt lat="42.4331" lon="0.08509">
        <ele>575.9</ele>
        <time>2016-07-24T08:02:40Z</time>
      </trkpt>
      <trkpt lat="42.43314" lon="0.08504">
        <ele>575.9</ele>
        <time>2016-07-24T08:02:41Z</time>
      </trkpt>
      <trkpt lat="42.43317" lon="0.08501">
        <ele>575.8</ele>
        <time>2016-07-24T08:02:42Z</time>
      </trkpt>
      <trkpt lat="42.4332" lon="0.08497">
        <ele>575.8</ele>
        <time>2016-07-24T08:02:43Z</time>
      </trkpt>
      <trkpt lat="42.43324" lon="0.08493">
        <ele>575.8</ele>
        <time>2016-07-24T08:02:44Z</time>
      </trkpt>
      <trkpt lat="42.43327" lon="0.08488">
        <ele>575.8</ele>
        <time>2016-07-24T08:02:45Z</time>
      </trkpt>
      <trkpt lat="42.43329" lon="0.08484">
        <ele>575.9</ele>
        <time>2016-07-24T08:02:46Z</time>
      </trkpt>
      <trkpt lat="42.43331" lon="0.0848">
        <ele>575.9</ele>
        <time>2016-07-24T08:02:47Z</time>
      </trkpt>
      <trkpt lat="42.4333" lon="0.08474">
        <ele>575.9</ele>
        <time>2016-07-24T08:02:48Z</time>
      </trkpt>
      <trkpt lat="42.43328" lon="0.08468">
        <ele>575.9</ele>
        <time>2016-07-24T08:02:49Z</time>
      </trkpt>
      <trkpt lat="42.43325" lon="0.08464">
        <ele>576</ele>
        <time>2016-07-24T08:02:50Z</time>
      </trkpt>
      <trkpt lat="42.43322" lon="0.0846">
        <ele>576</ele>
        <time>2016-07-24T08:02:51Z</time>
      </trkpt>
      <trkpt lat="42.43317" lon="0.08457">
        <ele>576</ele>
        <time>2016-07-24T08:02:52Z</time>
      </trkpt>
      <trkpt lat="42.43314" lon="0.08453">
        <ele>576</ele>
        <time>2016-07-24T08:02:53Z</time>
      </trkpt>
      <trkpt lat="42.43309" lon="0.0845">
        <ele>576.1</ele>
        <time>2016-07-24T08:02:54Z</time>
      </trkpt>
      <trkpt lat="42.43305" lon="0.08446">
        <ele>576.1</ele>
        <time>2016-07-24T08:02:55Z</time>
      </trkpt>
      <trkpt lat="42.43301" lon="0.08443">
        <ele>576.2</ele>
        <time>2016-07-24T08:02:56Z</time>
      </trkpt>
      <trkpt lat="42.43297" lon="0.08439">
        <ele>576.2</ele>
        <time>2016-07-24T08:02:57Z</time>
      </trkpt>
      <trkpt lat="42.43293" lon="0.08436">
        <ele>576.3</ele>
        <time>2016-07-24T08:02:58Z</time>
      </trkpt>
      <trkpt lat="42.43289" lon="0.08432">
        <ele>576.3</ele>
        <time>2016-07-24T08:02:59Z</time>
      </trkpt>
      <trkpt lat="42.43285" lon="0.08429">
        <ele>576.4</ele>
        <time>2016-07-24T08:03:00Z</time>
      </trkpt>
      <trkpt lat="42.43281" lon="0.08425">
        <ele>576.4</ele>
        <time>2016-07-24T08:03:01Z</time>
      </trkpt>
      <trkpt lat="42.43278" lon="0.0842">
        <ele>576.5</ele>
        <time>2016-07-24T08:03:02Z</time>
      </trkpt>
      <trkpt lat="42.43275" lon="0.08416">
        <ele>576.5</ele>
        <time>2016-07-24T08:03:03Z</time>
      </trkpt>
      <trkpt lat="42.43272" lon="0.08411">
        <ele>576.6</ele>
        <time>2016-07-24T08:03:04Z</time>
      </trkpt>
      <trkpt lat="42.43269" lon="0.08407">
        <ele>576.6</ele>
        <time>2016-07-24T08:03:05Z</time>
      </trkpt>
      <trkpt lat="42.43266" lon="0.08402">
        <ele>576.7</ele>
        <time>2016-07-24T08:03:06Z</time>
      </trkpt>
      <trkpt lat="42.43264" lon="0.08398">
        <ele>576.7</ele>
        <time>2016-07-24T08:03:07Z</time>
      </trkpt>
      <trkpt lat="42.43263" lon="0.08394">
        <ele>576.8</ele>
        <time>2016-07-24T08:03:08Z</time>
      </trkpt>
      <trkpt lat="42.4326" lon="0.08389">
        <ele>576.8</ele>
        <time>2016-07-24T08:03:09Z</time>
      </trkpt>
      <trkpt lat="42.43257" lon="0.08386">
        <ele>576.9</ele>
        <time>2016-07-24T08:03:10Z</time>
      </trkpt>
      <trkpt lat="42.43254" lon="0.08383">
        <ele>576.9</ele>
        <time>2016-07-24T08:03:11Z</time>
      </trkpt>
      <trkpt lat="42.4325" lon="0.08381">
        <ele>576.9</ele>
        <time>2016-07-24T08:03:12Z</time>
      </trkpt>
      <trkpt lat="42.43247" lon="0.08379">
        <ele>577</ele>
        <time>2016-07-24T08:03:13Z</time>
      </trkpt>
      <trkpt lat="42.43243" lon="0.08376">
        <ele>577</ele>
        <time>2016-07-24T08:03:14Z</time>
      </trkpt>
      <trkpt lat="42.43238" lon="0.08373">
        <ele>577</ele>
        <time>2016-07-24T08:03:15Z</time>
      </trkpt>
      <trkpt lat="42.43234" lon="0.0837">
        <ele>577</ele>
        <time>2016-07-24T08:03:16Z</time>
      </trkpt>
      <trkpt lat="42.43229" lon="0.08368">
        <ele>577</ele>
        <time>2016-07-24T08:03:17Z</time>
      </trkpt>
      <trkpt lat="42.43225" lon="0.08366">
        <ele>577</ele>
        <time>2016-07-24T08:03:18Z</time>
      </trkpt>
      <trkpt lat="42.4322" lon="0.08363">
        <ele>577</ele>
        <time>2016-07-24T08:03:19Z</time>
      </trkpt>
      <trkpt lat="42.43216" lon="0.08361">
        <ele>577.1</ele>
        <time>2016-07-24T08:03:20Z</time>
      </trkpt>
      <trkpt lat="42.43211" lon="0.08358">
        <ele>577.2</ele>
        <time>2016-07-24T08:03:21Z</time>
      </trkpt>
      <trkpt lat="42.43206" lon="0.08355">
        <ele>577.2</ele>
        <time>2016-07-24T08:03:22Z</time>
      </trkpt>
      <trkpt lat="42.43202" lon="0.08353">
        <ele>577.3</ele>
        <time>2016-07-24T08:03:23Z</time>
      </trkpt>
      <trkpt lat="42.43197" lon="0.0835">
        <ele>577.3</ele>
        <time>2016-07-24T08:03:24Z</time>
      </trkpt>
      <trkpt lat="42.43192" lon="0.08347">
        <ele>577.4</ele>
        <time>2016-07-24T08:03:25Z</time>
      </trkpt>
      <trkpt lat="42.43187" lon="0.08344">
        <ele>577.5</ele>
        <time>2016-07-24T08:03:26Z</time>
      </trkpt>
      <trkpt lat="42.43182" lon="0.08342">
        <ele>577.5</ele>
        <time>2016-07-24T08:03:27Z</time>
      </trkpt>
      <trkpt lat="42.43178" lon="0.08339">
        <ele>577.6</ele>
        <time>2016-07-24T08:03:28Z</time>
      </trkpt>
      <trkpt lat="42.43173" lon="0.08336">
        <ele>577.7</ele>
        <time>2016-07-24T08:03:29Z</time>
      </trkpt>
      <trkpt lat="42.43168" lon="0.08333">
        <ele>577.7</ele>
        <time>2016-07-24T08:03:30Z</time>
      </trkpt>
      <trkpt lat="42.43163" lon="0.0833">
        <ele>577.8</ele>
        <time>2016-07-24T08:03:31Z</time>
      </trkpt>
      <trkpt lat="42.43158" lon="0.08327">
        <ele>577.9</ele>
        <time>2016-07-24T08:03:32Z</time>
      </trkpt>
      <trkpt lat="42.43153" lon="0.08324">
        <ele>578</ele>
        <time>2016-07-24T08:03:33Z</time>
      </trkpt>
      <trkpt lat="42.43149" lon="0.08321">
        <ele>578.1</ele>
        <time>2016-07-24T08:03:34Z</time>
      </trkpt>
      <trkpt lat="42.43145" lon="0.08318">
        <ele>578.2</ele>
        <time>2016-07-24T08:03:35Z</time>
      </trkpt>
      <trkpt lat="42.4314" lon="0.08315">
        <ele>578.3</ele>
        <time>2016-07-24T08:03:36Z</time>
      </trkpt>
      <trkpt lat="42.43135" lon="0.08312">
        <ele>578.4</ele>
        <time>2016-07-24T08:03:37Z</time>
      </trkpt>
      <trkpt lat="42.43131" lon="0.0831">
        <ele>578.5</ele>
        <time>2016-07-24T08:03:38Z</time>
      </trkpt>
      <trkpt lat="42.43126" lon="0.08307">
        <ele>578.6</ele>
        <time>2016-07-24T08:03:39Z</time>
      </trkpt>
      <trkpt lat="42.43122" lon="0.08304">
        <ele>578.8</ele>
        <time>2016-07-24T08:03:40Z</time>
      </trkpt>
      <trkpt lat="42.43117" lon="0.08301">
        <ele>578.9</ele>
        <time>2016-07-24T08:03:41Z</time>
      </trkpt>
      <trkpt lat="42.43113" lon="0.08298">
        <ele>579</ele>
        <time>2016-07-24T08:03:42Z</time>
      </trkpt>
      <trkpt lat="42.43108" lon="0.08295">
        <ele>579.1</ele>
        <time>2016-07-24T08:03:43Z</time>
      </trkpt>
      <trkpt lat="42.43103" lon="0.08293">
        <ele>579.2</ele>
        <time>2016-07-24T08:03:44Z</time>
      </trkpt>
      <trkpt lat="42.43099" lon="0.08291">
        <ele>579.3</ele>
        <time>2016-07-24T08:03:45Z</time>
      </trkpt>
      <trkpt lat="42.43094" lon="0.08288">
        <ele>579.3</ele>
        <time>2016-07-24T08:03:46Z</time>
      </trkpt>
      <trkpt lat="42.4309" lon="0.08285">
        <ele>579.3</ele>
        <time>2016-07-24T08:03:47Z</time>
      </trkpt>
      <trkpt lat="42.43085" lon="0.08283">
        <ele>579.4</ele>
        <time>2016-07-24T08:03:48Z</time>
      </trkpt>
      <trkpt lat="42.43081" lon="0.08279">
        <ele>579.4</ele>
        <time>2016-07-24T08:03:49Z</time>
      </trkpt>
      <trkpt lat="42.43076" lon="0.08277">
        <ele>579.4</ele>
        <time>2016-07-24T08:03:50Z</time>
      </trkpt>
      <trkpt lat="42.43072" lon="0.08274">
        <ele>579.4</ele>
        <time>2016-07-24T08:03:51Z</time>
      </trkpt>
      <trkpt lat="42.43068" lon="0.08272">
        <ele>579.4</ele>
        <time>2016-07-24T08:03:52Z</time>
      </trkpt>
      <trkpt lat="42.43064" lon="0.08269">
        <ele>579.5</ele>
        <time>2016-07-24T08:03:53Z</time>
      </trkpt>
      <trkpt lat="42.4306" lon="0.08266">
        <ele>579.5</ele>
        <time>2016-07-24T08:03:54Z</time>
      </trkpt>
      <trkpt lat="42.43056" lon="0.08263">
        <ele>579.5</ele>
        <time>2016-07-24T08:03:55Z</time>
      </trkpt>
      <trkpt lat="42.43052" lon="0.0826">
        <ele>579.5</ele>
        <time>2016-07-24T08:03:56Z</time>
      </trkpt>
      <trkpt lat="42.43047" lon="0.08257">
        <ele>579.5</ele>
        <time>2016-07-24T08:03:57Z</time>
      </trkpt>
      <trkpt lat="42.43043" lon="0.08254">
        <ele>579.5</ele>
        <time>2016-07-24T08:03:58Z</time>
      </trkpt>
      <trkpt lat="42.43039" lon="0.08252">
        <ele>579.7</ele>
        <time>2016-07-24T08:03:59Z</time>
      </trkpt>
      <trkpt lat="42.43035" lon="0.0825">
        <ele>579.9</ele>
        <time>2016-07-24T08:04:00Z</time>
      </trkpt>
      <trkpt lat="42.4303" lon="0.08247">
        <ele>580.2</ele>
        <time>2016-07-24T08:04:01Z</time>
      </trkpt>
      <trkpt lat="42.43025" lon="0.08245">
        <ele>580.5</ele>
        <time>2016-07-24T08:04:02Z</time>
      </trkpt>
      <trkpt lat="42.43021" lon="0.08243">
        <ele>580.8</ele>
        <time>2016-07-24T08:04:03Z</time>
      </trkpt>
      <trkpt lat="42.43017" lon="0.08241">
        <ele>581.1</ele>
        <time>2016-07-24T08:04:04Z</time>
      </trkpt>
      <trkpt lat="42.43012" lon="0.08239">
        <ele>581.4</ele>
        <time>2016-07-24T08:04:05Z</time>
      </trkpt>
      <trkpt lat="42.43008" lon="0.08236">
        <ele>581.8</ele>
        <time>2016-07-24T08:04:06Z</time>
      </trkpt>
      <trkpt lat="42.43004" lon="0.08234">
        <ele>582.1</ele>
        <time>2016-07-24T08:04:07Z</time>
      </trkpt>
      <trkpt lat="42.43" lon="0.08231">
        <ele>582.5</ele>
        <time>2016-07-24T08:04:08Z</time>
      </trkpt>
      <trkpt lat="42.42995" lon="0.08229">
        <ele>582.9</ele>
        <time>2016-07-24T08:04:09Z</time>
      </trkpt>
      <trkpt lat="42.4299" lon="0.08226">
        <ele>583.4</ele>
        <time>2016-07-24T08:04:10Z</time>
      </trkpt>
      <trkpt lat="42.42986" lon="0.08223">
        <ele>583.8</ele>
        <time>2016-07-24T08:04:11Z</time>
      </trkpt>
      <trkpt lat="42.42982" lon="0.0822">
        <ele>584.3</ele>
        <time>2016-07-24T08:04:12Z</time>
      </trkpt>
      <trkpt lat="42.42977" lon="0.08218">
        <ele>584.8</ele>
        <time>2016-07-24T08:04:13Z</time>
      </trkpt>
      <trkpt lat="42.42973" lon="0.08215">
        <ele>585.3</ele>
        <time>2016-07-24T08:04:14Z</time>
      </trkpt>
      <trkpt lat="42.42969" lon="0.08213">
        <ele>585.8</ele>
        <time>2016-07-24T08:04:15Z</time>
      </trkpt>
      <trkpt lat="42.42964" lon="0.0821">
        <ele>586.3</ele>
        <time>2016-07-24T08:04:16Z</time>
      </trkpt>
      <trkpt lat="42.4296" lon="0.08207">
        <ele>587.1</ele>
        <time>2016-07-24T08:04:17Z</time>
      </trkpt>
      <trkpt lat="42.42956" lon="0.08204">
        <ele>587.7</ele>
        <time>2016-07-24T08:04:18Z</time>
      </trkpt>
      <trkpt lat="42.42952" lon="0.08202">
        <ele>588</ele>
        <time>2016-07-24T08:04:19Z</time>
      </trkpt>
      <trkpt lat="42.42948" lon="0.08199">
        <ele>588.6</ele>
        <time>2016-07-24T08:04:20Z</time>
      </trkpt>
      <trkpt lat="42.42943" lon="0.08197">
        <ele>589</ele>
        <time>2016-07-24T08:04:21Z</time>
      </trkpt>
      <trkpt lat="42.42939" lon="0.08194">
        <ele>589.5</ele>
        <time>2016-07-24T08:04:22Z</time>
      </trkpt>
      <trkpt lat="42.42934" lon="0.08192">
        <ele>589.9</ele>
        <time>2016-07-24T08:04:23Z</time>
      </trkpt>
      <trkpt lat="42.4293" lon="0.0819">
        <ele>590.3</ele>
        <time>2016-07-24T08:04:24Z</time>
      </trkpt>
      <trkpt lat="42.42926" lon="0.08187">
        <ele>590.9</ele>
        <time>2016-07-24T08:04:25Z</time>
      </trkpt>
      <trkpt lat="42.42922" lon="0.08184">
        <ele>591.5</ele>
        <time>2016-07-24T08:04:26Z</time>
      </trkpt>
      <trkpt lat="42.42918" lon="0.08181">
        <ele>592.1</ele>
        <time>2016-07-24T08:04:27Z</time>
      </trkpt>
      <trkpt lat="42.42913" lon="0.08178">
        <ele>592.8</ele>
        <time>2016-07-24T08:04:28Z</time>
      </trkpt>
      <trkpt lat="42.42909" lon="0.08175">
        <ele>593.4</ele>
        <time>2016-07-24T08:04:29Z</time>
      </trkpt>
      <trkpt lat="42.42905" lon="0.08173">
        <ele>593.9</ele>
        <time>2016-07-24T08:04:30Z</time>
      </trkpt>
      <trkpt lat="42.42902" lon="0.08171">
        <ele>594.4</ele>
        <time>2016-07-24T08:04:31Z</time>
      </trkpt>
      <trkpt lat="42.42898" lon="0.08168">
        <ele>595</ele>
        <time>2016-07-24T08:04:32Z</time>
      </trkpt>
      <trkpt lat="42.42895" lon="0.08166">
        <ele>595.6</ele>
        <time>2016-07-24T08:04:33Z</time>
      </trkpt>
      <trkpt lat="42.42891" lon="0.08162">
        <ele>596.4</ele>
        <time>2016-07-24T08:04:34Z</time>
      </trkpt>
      <trkpt lat="42.42887" lon="0.0816">
        <ele>597</ele>
        <time>2016-07-24T08:04:35Z</time>
      </trkpt>
      <trkpt lat="42.42882" lon="0.08158">
        <ele>597.7</ele>
        <time>2016-07-24T08:04:36Z</time>
      </trkpt>
      <trkpt lat="42.42878" lon="0.08156">
        <ele>598.3</ele>
        <time>2016-07-24T08:04:37Z</time>
      </trkpt>
      <trkpt lat="42.42874" lon="0.08154">
        <ele>598.6</ele>
        <time>2016-07-24T08:04:38Z</time>
      </trkpt>
      <trkpt lat="42.4287" lon="0.08152">
        <ele>598.5</ele>
        <time>2016-07-24T08:04:39Z</time>
      </trkpt>
      <trkpt lat="42.42866" lon="0.08149">
        <ele>598.5</ele>
        <time>2016-07-24T08:04:40Z</time>
      </trkpt>
      <trkpt lat="42.42861" lon="0.08146">
        <ele>598.5</ele>
        <time>2016-07-24T08:04:41Z</time>
      </trkpt>
      <trkpt lat="42.42857" lon="0.08143">
        <ele>598.3</ele>
        <time>2016-07-24T08:04:42Z</time>
      </trkpt>
      <trkpt lat="42.42852" lon="0.0814">
        <ele>598.2</ele>
        <time>2016-07-24T08:04:43Z</time>
      </trkpt>
      <trkpt lat="42.42848" lon="0.08138">
        <ele>597.8</ele>
        <time>2016-07-24T08:04:44Z</time>
      </trkpt>
      <trkpt lat="42.42844" lon="0.08135">
        <ele>597.5</ele>
        <time>2016-07-24T08:04:45Z</time>
      </trkpt>
      <trkpt lat="42.42841" lon="0.08133">
        <ele>597.1</ele>
        <time>2016-07-24T08:04:46Z</time>
      </trkpt>
      <trkpt lat="42.42837" lon="0.08131">
        <ele>596.6</ele>
        <time>2016-07-24T08:04:47Z</time>
      </trkpt>
      <trkpt lat="42.42833" lon="0.08129">
        <ele>596</ele>
        <time>2016-07-24T08:04:48Z</time>
      </trkpt>
      <trkpt lat="42.42829" lon="0.08127">
        <ele>595.5</ele>
        <time>2016-07-24T08:04:49Z</time>
      </trkpt>
      <trkpt lat="42.42826" lon="0.08124">
        <ele>595</ele>
        <time>2016-07-24T08:04:50Z</time>
      </trkpt>
      <trkpt lat="42.42822" lon="0.08122">
        <ele>594.5</ele>
        <time>2016-07-24T08:04:51Z</time>
      </trkpt>
      <trkpt lat="42.42818" lon="0.0812">
        <ele>594</ele>
        <time>2016-07-24T08:04:52Z</time>
      </trkpt>
      <trkpt lat="42.42814" lon="0.08117">
        <ele>593.4</ele>
        <time>2016-07-24T08:04:53Z</time>
      </trkpt>
      <trkpt lat="42.4281" lon="0.08114">
        <ele>592.8</ele>
        <time>2016-07-24T08:04:54Z</time>
      </trkpt>
      <trkpt lat="42.42807" lon="0.08112">
        <ele>592.3</ele>
        <time>2016-07-24T08:04:55Z</time>
      </trkpt>
      <trkpt lat="42.42802" lon="0.08111">
        <ele>591.5</ele>
        <time>2016-07-24T08:04:56Z</time>
      </trkpt>
      <trkpt lat="42.42798" lon="0.08108">
        <ele>590.8</ele>
        <time>2016-07-24T08:04:57Z</time>
      </trkpt>
      <trkpt lat="42.42794" lon="0.08105">
        <ele>590.1</ele>
        <time>2016-07-24T08:04:58Z</time>
      </trkpt>
      <trkpt lat="42.4279" lon="0.08104">
        <ele>589.7</ele>
        <time>2016-07-24T08:04:59Z</time>
      </trkpt>
      <trkpt lat="42.42785" lon="0.08101">
        <ele>589.9</ele>
        <time>2016-07-24T08:05:00Z</time>
      </trkpt>
      <trkpt lat="42.42781" lon="0.08098">
        <ele>590</ele>
        <time>2016-07-24T08:05:01Z</time>
      </trkpt>
      <trkpt lat="42.42777" lon="0.08093">
        <ele>590.2</ele>
        <time>2016-07-24T08:05:02Z</time>
      </trkpt>
      <trkpt lat="42.42773" lon="0.08088">
        <ele>590.4</ele>
        <time>2016-07-24T08:05:03Z</time>
      </trkpt>
      <trkpt lat="42.42768" lon="0.08083">
        <ele>590.5</ele>
        <time>2016-07-24T08:05:04Z</time>
      </trkpt>
      <trkpt lat="42.42764" lon="0.08078">
        <ele>590.7</ele>
        <time>2016-07-24T08:05:05Z</time>
      </trkpt>
      <trkpt lat="42.42757" lon="0.08074">
        <ele>590.5</ele>
        <time>2016-07-24T08:05:07Z</time>
      </trkpt>
      <trkpt lat="42.42753" lon="0.0807">
        <ele>590.5</ele>
        <time>2016-07-24T08:05:08Z</time>
      </trkpt>
      <trkpt lat="42.42749" lon="0.08066">
        <ele>590.4</ele>
        <time>2016-07-24T08:05:09Z</time>
      </trkpt>
      <trkpt lat="42.42745" lon="0.08062">
        <ele>590.3</ele>
        <time>2016-07-24T08:05:10Z</time>
      </trkpt>
      <trkpt lat="42.42742" lon="0.08056">
        <ele>590.3</ele>
        <time>2016-07-24T08:05:11Z</time>
      </trkpt>
      <trkpt lat="42.4274" lon="0.08053">
        <ele>590.3</ele>
        <time>2016-07-24T08:05:12Z</time>
      </trkpt>
      <trkpt lat="42.42736" lon="0.08048">
        <ele>590.1</ele>
        <time>2016-07-24T08:05:13Z</time>
      </trkpt>
      <trkpt lat="42.42734" lon="0.08045">
        <ele>590.1</ele>
        <time>2016-07-24T08:05:14Z</time>
      </trkpt>
      <trkpt lat="42.42732" lon="0.0804">
        <ele>590</ele>
        <time>2016-07-24T08:05:15Z</time>
      </trkpt>
      <trkpt lat="42.4273" lon="0.08035">
        <ele>590</ele>
        <time>2016-07-24T08:05:16Z</time>
      </trkpt>
      <trkpt lat="42.42728" lon="0.0803">
        <ele>589.9</ele>
        <time>2016-07-24T08:05:17Z</time>
      </trkpt>
      <trkpt lat="42.42726" lon="0.08024">
        <ele>589.9</ele>
        <time>2016-07-24T08:05:18Z</time>
      </trkpt>
      <trkpt lat="42.42724" lon="0.0802">
        <ele>589.9</ele>
        <time>2016-07-24T08:05:19Z</time>
      </trkpt>
      <trkpt lat="42.42723" lon="0.08015">
        <ele>590</ele>
        <time>2016-07-24T08:05:20Z</time>
      </trkpt>
      <trkpt lat="42.42722" lon="0.0801">
        <ele>590</ele>
        <time>2016-07-24T08:05:21Z</time>
      </trkpt>
      <trkpt lat="42.4272" lon="0.08005">
        <ele>590.1</ele>
        <time>2016-07-24T08:05:22Z</time>
      </trkpt>
      <trkpt lat="42.42719" lon="0.08">
        <ele>590.1</ele>
        <time>2016-07-24T08:05:23Z</time>
      </trkpt>
      <trkpt lat="42.42717" lon="0.07996">
        <ele>590.2</ele>
        <time>2016-07-24T08:05:24Z</time>
      </trkpt>
      <trkpt lat="42.42716" lon="0.07991">
        <ele>590.2</ele>
        <time>2016-07-24T08:05:25Z</time>
      </trkpt>
      <trkpt lat="42.42714" lon="0.07986">
        <ele>590.3</ele>
        <time>2016-07-24T08:05:26Z</time>
      </trkpt>
      <trkpt lat="42.42713" lon="0.07982">
        <ele>590.4</ele>
        <time>2016-07-24T08:05:27Z</time>
      </trkpt>
      <trkpt lat="42.42712" lon="0.07977">
        <ele>590.5</ele>
        <time>2016-07-24T08:05:28Z</time>
      </trkpt>
      <trkpt lat="42.4271" lon="0.07972">
        <ele>590.6</ele>
        <time>2016-07-24T08:05:29Z</time>
      </trkpt>
      <trkpt lat="42.42709" lon="0.07967">
        <ele>590.7</ele>
        <time>2016-07-24T08:05:30Z</time>
      </trkpt>
      <trkpt lat="42.42707" lon="0.07963">
        <ele>591.1</ele>
        <time>2016-07-24T08:05:31Z</time>
      </trkpt>
      <trkpt lat="42.42706" lon="0.07958">
        <ele>591.5</ele>
        <time>2016-07-24T08:05:32Z</time>
      </trkpt>
      <trkpt lat="42.42705" lon="0.07953">
        <ele>591.8</ele>
        <time>2016-07-24T08:05:33Z</time>
      </trkpt>
      <trkpt lat="42.42704" lon="0.07948">
        <ele>592.1</ele>
        <time>2016-07-24T08:05:34Z</time>
      </trkpt>
      <trkpt lat="42.42703" lon="0.07943">
        <ele>592.5</ele>
        <time>2016-07-24T08:05:35Z</time>
      </trkpt>
      <trkpt lat="42.42702" lon="0.07938">
        <ele>592.9</ele>
        <time>2016-07-24T08:05:36Z</time>
      </trkpt>
      <trkpt lat="42.427" lon="0.07934">
        <ele>593.3</ele>
        <time>2016-07-24T08:05:37Z</time>
      </trkpt>
      <trkpt lat="42.42698" lon="0.0793">
        <ele>593.7</ele>
        <time>2016-07-24T08:05:38Z</time>
      </trkpt>
      <trkpt lat="42.42696" lon="0.07926">
        <ele>594.1</ele>
        <time>2016-07-24T08:05:39Z</time>
      </trkpt>
      <trkpt lat="42.42695" lon="0.07922">
        <ele>594.5</ele>
        <time>2016-07-24T08:05:40Z</time>
      </trkpt>
      <trkpt lat="42.42693" lon="0.07919">
        <ele>594.9</ele>
        <time>2016-07-24T08:05:41Z</time>
      </trkpt>
      <trkpt lat="42.42689" lon="0.07915">
        <ele>595.5</ele>
        <time>2016-07-24T08:05:43Z</time>
      </trkpt>
      <trkpt lat="42.42687" lon="0.07916">
        <ele>596.1</ele>
        <time>2016-07-24T08:05:46Z</time>
      </trkpt>
      <trkpt lat="42.4269" lon="0.0792">
        <ele>595.5</ele>
        <time>2016-07-24T08:05:48Z</time>
      </trkpt>
      <trkpt lat="42.42693" lon="0.07918">
        <ele>594.8</ele>
        <time>2016-07-24T08:05:50Z</time>
      </trkpt>
      <trkpt lat="42.42693" lon="0.07913">
        <ele>594.8</ele>
        <time>2016-07-24T08:05:52Z</time>
      </trkpt>
      <trkpt lat="42.4269" lon="0.07907">
        <ele>595.4</ele>
        <time>2016-07-24T08:05:54Z</time>
      </trkpt>
      <trkpt lat="42.42688" lon="0.07903">
        <ele>595.8</ele>
        <time>2016-07-24T08:05:55Z</time>
      </trkpt>
      <trkpt lat="42.42685" lon="0.079">
        <ele>596.2</ele>
        <time>2016-07-24T08:05:56Z</time>
      </trkpt>
      <trkpt lat="42.42683" lon="0.07896">
        <ele>596.6</ele>
        <time>2016-07-24T08:05:57Z</time>
      </trkpt>
      <trkpt lat="42.4268" lon="0.07893">
        <ele>596.9</ele>
        <time>2016-07-24T08:05:58Z</time>
      </trkpt>
      <trkpt lat="42.42676" lon="0.0789">
        <ele>597.5</ele>
        <time>2016-07-24T08:06:00Z</time>
      </trkpt>
      <trkpt lat="42.42672" lon="0.07885">
        <ele>598</ele>
        <time>2016-07-24T08:06:02Z</time>
      </trkpt>
      <trkpt lat="42.4267" lon="0.07882">
        <ele>598.3</ele>
        <time>2016-07-24T08:06:03Z</time>
      </trkpt>
      <trkpt lat="42.42668" lon="0.07879">
        <ele>598.5</ele>
        <time>2016-07-24T08:06:04Z</time>
      </trkpt>
      <trkpt lat="42.42666" lon="0.07876">
        <ele>598.7</ele>
        <time>2016-07-24T08:06:05Z</time>
      </trkpt>
      <trkpt lat="42.42664" lon="0.07873">
        <ele>598.8</ele>
        <time>2016-07-24T08:06:06Z</time>
      </trkpt>
      <trkpt lat="42.42662" lon="0.07871">
        <ele>598.9</ele>
        <time>2016-07-24T08:06:07Z</time>
      </trkpt>
      <trkpt lat="42.4266" lon="0.07869">
        <ele>599.1</ele>
        <time>2016-07-24T08:06:08Z</time>
      </trkpt>
      <trkpt lat="42.42655" lon="0.07865">
        <ele>599.5</ele>
        <time>2016-07-24T08:06:10Z</time>
      </trkpt>
      <trkpt lat="42.42651" lon="0.07862">
        <ele>599.7</ele>
        <time>2016-07-24T08:06:12Z</time>
      </trkpt>
      <trkpt lat="42.42647" lon="0.07859">
        <ele>599.9</ele>
        <time>2016-07-24T08:06:14Z</time>
      </trkpt>
      <trkpt lat="42.42645" lon="0.07854">
        <ele>599.8</ele>
        <time>2016-07-24T08:06:16Z</time>
      </trkpt>
      <trkpt lat="42.42641" lon="0.07849">
        <ele>599.7</ele>
        <time>2016-07-24T08:06:18Z</time>
      </trkpt>
      <trkpt lat="42.42638" lon="0.07843">
        <ele>599.6</ele>
        <time>2016-07-24T08:06:20Z</time>
      </trkpt>
      <trkpt lat="42.42635" lon="0.07841">
        <ele>599.5</ele>
        <time>2016-07-24T08:06:21Z</time>
      </trkpt>
      <trkpt lat="42.42633" lon="0.07839">
        <ele>599.5</ele>
        <time>2016-07-24T08:06:22Z</time>
      </trkpt>
      <trkpt lat="42.42631" lon="0.07836">
        <ele>599.4</ele>
        <time>2016-07-24T08:06:23Z</time>
      </trkpt>
      <trkpt lat="42.42629" lon="0.07834">
        <ele>599.3</ele>
        <time>2016-07-24T08:06:24Z</time>
      </trkpt>
      <trkpt lat="42.42625" lon="0.07831">
        <ele>599.2</ele>
        <time>2016-07-24T08:06:26Z</time>
      </trkpt>
      <trkpt lat="42.42621" lon="0.07828">
        <ele>600.1</ele>
        <time>2016-07-24T08:06:28Z</time>
      </trkpt>
      <trkpt lat="42.42618" lon="0.07825">
        <ele>600.8</ele>
        <time>2016-07-24T08:06:30Z</time>
      </trkpt>
      <trkpt lat="42.42615" lon="0.07823">
        <ele>601.5</ele>
        <time>2016-07-24T08:06:32Z</time>
      </trkpt>
      <trkpt lat="42.42611" lon="0.0782">
        <ele>602.2</ele>
        <time>2016-07-24T08:06:34Z</time>
      </trkpt>
      <trkpt lat="42.42608" lon="0.07818">
        <ele>602.9</ele>
        <time>2016-07-24T08:06:36Z</time>
      </trkpt>
      <trkpt lat="42.42606" lon="0.07815">
        <ele>603.4</ele>
        <time>2016-07-24T08:06:38Z</time>
      </trkpt>
      <trkpt lat="42.42604" lon="0.07811">
        <ele>603.4</ele>
        <time>2016-07-24T08:06:40Z</time>
      </trkpt>
      <trkpt lat="42.42602" lon="0.07808">
        <ele>603.6</ele>
        <time>2016-07-24T08:06:43Z</time>
      </trkpt>
      <trkpt lat="42.42601" lon="0.07811">
        <ele>604.4</ele>
        <time>2016-07-24T08:06:46Z</time>
      </trkpt>
      <trkpt lat="42.42605" lon="0.07816">
        <ele>603.6</ele>
        <time>2016-07-24T08:06:48Z</time>
      </trkpt>
      <trkpt lat="42.42608" lon="0.07818">
        <ele>603</ele>
        <time>2016-07-24T08:06:49Z</time>
      </trkpt>
      <trkpt lat="42.42611" lon="0.07821">
        <ele>602.3</ele>
        <time>2016-07-24T08:06:50Z</time>
      </trkpt>
      <trkpt lat="42.42615" lon="0.07824">
        <ele>601.6</ele>
        <time>2016-07-24T08:06:51Z</time>
      </trkpt>
      <trkpt lat="42.42618" lon="0.07826">
        <ele>600.8</ele>
        <time>2016-07-24T08:06:52Z</time>
      </trkpt>
      <trkpt lat="42.42622" lon="0.07829">
        <ele>600</ele>
        <time>2016-07-24T08:06:53Z</time>
      </trkpt>
      <trkpt lat="42.42625" lon="0.07832">
        <ele>599.4</ele>
        <time>2016-07-24T08:06:54Z</time>
      </trkpt>
      <trkpt lat="42.42628" lon="0.07835">
        <ele>599.4</ele>
        <time>2016-07-24T08:06:55Z</time>
      </trkpt>
      <trkpt lat="42.42631" lon="0.07838">
        <ele>599.5</ele>
        <time>2016-07-24T08:06:57Z</time>
      </trkpt>
      <trkpt lat="42.42632" lon="0.07841">
        <ele>599.8</ele>
        <time>2016-07-24T08:06:59Z</time>
      </trkpt>
      <trkpt lat="42.4263" lon="0.07843">
        <ele>600.2</ele>
        <time>2016-07-24T08:07:03Z</time>
      </trkpt>
      <trkpt lat="42.42627" lon="0.07842">
        <ele>600.2</ele>
        <time>2016-07-24T08:07:05Z</time>
      </trkpt>
      <trkpt lat="42.42623" lon="0.07839">
        <ele>600.8</ele>
        <time>2016-07-24T08:07:07Z</time>
      </trkpt>
      <trkpt lat="42.42618" lon="0.07837">
        <ele>602</ele>
        <time>2016-07-24T08:07:09Z</time>
      </trkpt>
      <trkpt lat="42.42613" lon="0.07834">
        <ele>603.3</ele>
        <time>2016-07-24T08:07:11Z</time>
      </trkpt>
      <trkpt lat="42.4261" lon="0.07833">
        <ele>604</ele>
        <time>2016-07-24T08:07:12Z</time>
      </trkpt>
      <trkpt lat="42.42608" lon="0.07831">
        <ele>604.6</ele>
        <time>2016-07-24T08:07:13Z</time>
      </trkpt>
      <trkpt lat="42.42605" lon="0.0783">
        <ele>605.2</ele>
        <time>2016-07-24T08:07:14Z</time>
      </trkpt>
      <trkpt lat="42.42603" lon="0.07828">
        <ele>605.8</ele>
        <time>2016-07-24T08:07:15Z</time>
      </trkpt>
      <trkpt lat="42.426" lon="0.07826">
        <ele>606.5</ele>
        <time>2016-07-24T08:07:16Z</time>
      </trkpt>
      <trkpt lat="42.42597" lon="0.07825">
        <ele>607.3</ele>
        <time>2016-07-24T08:07:17Z</time>
      </trkpt>
      <trkpt lat="42.42593" lon="0.07823">
        <ele>608</ele>
        <time>2016-07-24T08:07:18Z</time>
      </trkpt>
      <trkpt lat="42.4259" lon="0.07821">
        <ele>608.8</ele>
        <time>2016-07-24T08:07:19Z</time>
      </trkpt>
      <trkpt lat="42.42587" lon="0.07818">
        <ele>609.5</ele>
        <time>2016-07-24T08:07:20Z</time>
      </trkpt>
      <trkpt lat="42.42584" lon="0.07816">
        <ele>610.1</ele>
        <time>2016-07-24T08:07:21Z</time>
      </trkpt>
      <trkpt lat="42.42581" lon="0.07813">
        <ele>610.7</ele>
        <time>2016-07-24T08:07:22Z</time>
      </trkpt>
      <trkpt lat="42.42578" lon="0.07811">
        <ele>611.2</ele>
        <time>2016-07-24T08:07:23Z</time>
      </trkpt>
      <trkpt lat="42.42575" lon="0.07808">
        <ele>611.5</ele>
        <time>2016-07-24T08:07:24Z</time>
      </trkpt>
      <trkpt lat="42.42573" lon="0.07805">
        <ele>611.9</ele>
        <time>2016-07-24T08:07:25Z</time>
      </trkpt>
      <trkpt lat="42.4257" lon="0.07802">
        <ele>612.3</ele>
        <time>2016-07-24T08:07:26Z</time>
      </trkpt>
      <trkpt lat="42.42567" lon="0.07799">
        <ele>612.6</ele>
        <time>2016-07-24T08:07:27Z</time>
      </trkpt>
      <trkpt lat="42.42565" lon="0.07796">
        <ele>613</ele>
        <time>2016-07-24T08:07:28Z</time>
      </trkpt>
      <trkpt lat="42.42562" lon="0.07793">
        <ele>613.2</ele>
        <time>2016-07-24T08:07:29Z</time>
      </trkpt>
      <trkpt lat="42.4256" lon="0.07789">
        <ele>613.5</ele>
        <time>2016-07-24T08:07:30Z</time>
      </trkpt>
      <trkpt lat="42.42558" lon="0.07786">
        <ele>613.7</ele>
        <time>2016-07-24T08:07:31Z</time>
      </trkpt>
      <trkpt lat="42.42556" lon="0.07783">
        <ele>613.9</ele>
        <time>2016-07-24T08:07:32Z</time>
      </trkpt>
      <trkpt lat="42.42554" lon="0.07779">
        <ele>614</ele>
        <time>2016-07-24T08:07:33Z</time>
      </trkpt>
      <trkpt lat="42.42552" lon="0.07776">
        <ele>614.2</ele>
        <time>2016-07-24T08:07:34Z</time>
      </trkpt>
      <trkpt lat="42.4255" lon="0.07774">
        <ele>614.3</ele>
        <time>2016-07-24T08:07:35Z</time>
      </trkpt>
      <trkpt lat="42.42548" lon="0.07771">
        <ele>614.5</ele>
        <time>2016-07-24T08:07:36Z</time>
      </trkpt>
      <trkpt lat="42.42546" lon="0.07768">
        <ele>614.5</ele>
        <time>2016-07-24T08:07:37Z</time>
      </trkpt>
      <trkpt lat="42.42544" lon="0.07765">
        <ele>614.6</ele>
        <time>2016-07-24T08:07:38Z</time>
      </trkpt>
      <trkpt lat="42.42542" lon="0.07762">
        <ele>614.5</ele>
        <time>2016-07-24T08:07:39Z</time>
      </trkpt>
      <trkpt lat="42.42541" lon="0.07759">
        <ele>614.3</ele>
        <time>2016-07-24T08:07:40Z</time>
      </trkpt>
      <trkpt lat="42.4254" lon="0.07755">
        <ele>614</ele>
        <time>2016-07-24T08:07:41Z</time>
      </trkpt>
      <trkpt lat="42.42538" lon="0.0775">
        <ele>613.3</ele>
        <time>2016-07-24T08:07:43Z</time>
      </trkpt>
      <trkpt lat="42.42537" lon="0.07746">
        <ele>612.8</ele>
        <time>2016-07-24T08:07:45Z</time>
      </trkpt>
      <trkpt lat="42.42536" lon="0.07741">
        <ele>612.3</ele>
        <time>2016-07-24T08:07:47Z</time>
      </trkpt>
      <trkpt lat="42.42534" lon="0.07737">
        <ele>611.6</ele>
        <time>2016-07-24T08:07:49Z</time>
      </trkpt>
      <trkpt lat="42.42532" lon="0.07731">
        <ele>611</ele>
        <time>2016-07-24T08:07:51Z</time>
      </trkpt>
      <trkpt lat="42.4253" lon="0.07726">
        <ele>610.3</ele>
        <time>2016-07-24T08:07:53Z</time>
      </trkpt>
      <trkpt lat="42.42528" lon="0.07721">
        <ele>609.7</ele>
        <time>2016-07-24T08:07:55Z</time>
      </trkpt>
      <trkpt lat="42.42526" lon="0.07717">
        <ele>609.2</ele>
        <time>2016-07-24T08:07:57Z</time>
      </trkpt>
      <trkpt lat="42.42524" lon="0.07712">
        <ele>608.7</ele>
        <time>2016-07-24T08:07:59Z</time>
      </trkpt>
      <trkpt lat="42.42522" lon="0.07708">
        <ele>608.2</ele>
        <time>2016-07-24T08:08:01Z</time>
      </trkpt>
      <trkpt lat="42.42521" lon="0.07702">
        <ele>608.5</ele>
        <time>2016-07-24T08:08:03Z</time>
      </trkpt>
      <trkpt lat="42.42521" lon="0.07697">
        <ele>608.7</ele>
        <time>2016-07-24T08:08:05Z</time>
      </trkpt>
      <trkpt lat="42.42523" lon="0.07692">
        <ele>608.8</ele>
        <time>2016-07-24T08:08:07Z</time>
      </trkpt>
      <trkpt lat="42.42524" lon="0.07689">
        <ele>608.8</ele>
        <time>2016-07-24T08:08:09Z</time>
      </trkpt>
      <trkpt lat="42.42526" lon="0.07685">
        <ele>608.7</ele>
        <time>2016-07-24T08:08:11Z</time>
      </trkpt>
      <trkpt lat="42.4253" lon="0.07682">
        <ele>608.6</ele>
        <time>2016-07-24T08:08:13Z</time>
      </trkpt>
      <trkpt lat="42.42533" lon="0.07679">
        <ele>608.4</ele>
        <time>2016-07-24T08:08:15Z</time>
      </trkpt>
      <trkpt lat="42.42536" lon="0.07674">
        <ele>608.3</ele>
        <time>2016-07-24T08:08:17Z</time>
      </trkpt>
      <trkpt lat="42.42536" lon="0.07671">
        <ele>608.4</ele>
        <time>2016-07-24T08:08:19Z</time>
      </trkpt>
      <trkpt lat="42.42536" lon="0.07666">
        <ele>608.6</ele>
        <time>2016-07-24T08:08:21Z</time>
      </trkpt>
      <trkpt lat="42.42534" lon="0.07662">
        <ele>608.8</ele>
        <time>2016-07-24T08:08:23Z</time>
      </trkpt>
      <trkpt lat="42.42532" lon="0.07658">
        <ele>609.1</ele>
        <time>2016-07-24T08:08:25Z</time>
      </trkpt>
      <trkpt lat="42.4253" lon="0.07653">
        <ele>609.5</ele>
        <time>2016-07-24T08:08:27Z</time>
      </trkpt>
      <trkpt lat="42.4253" lon="0.07647">
        <ele>609.7</ele>
        <time>2016-07-24T08:08:29Z</time>
      </trkpt>
      <trkpt lat="42.4253" lon="0.07641">
        <ele>609.9</ele>
        <time>2016-07-24T08:08:31Z</time>
      </trkpt>
      <trkpt lat="42.42528" lon="0.07635">
        <ele>610.3</ele>
        <time>2016-07-24T08:08:33Z</time>
      </trkpt>
      <trkpt lat="42.42526" lon="0.07632">
        <ele>610.6</ele>
        <time>2016-07-24T08:08:34Z</time>
      </trkpt>
      <trkpt lat="42.42524" lon="0.07629">
        <ele>611</ele>
        <time>2016-07-24T08:08:35Z</time>
      </trkpt>
      <trkpt lat="42.42522" lon="0.07626">
        <ele>611.3</ele>
        <time>2016-07-24T08:08:36Z</time>
      </trkpt>
      <trkpt lat="42.42518" lon="0.07623">
        <ele>612.5</ele>
        <time>2016-07-24T08:08:38Z</time>
      </trkpt>
      <trkpt lat="42.42515" lon="0.07619">
        <ele>613.8</ele>
        <time>2016-07-24T08:08:40Z</time>
      </trkpt>
      <trkpt lat="42.42513" lon="0.07617">
        <ele>614.6</ele>
        <time>2016-07-24T08:08:42Z</time>
      </trkpt>
      <trkpt lat="42.42509" lon="0.07619">
        <ele>614.6</ele>
        <time>2016-07-24T08:08:45Z</time>
      </trkpt>
      <trkpt lat="42.42505" lon="0.07622">
        <ele>614.1</ele>
        <time>2016-07-24T08:08:47Z</time>
      </trkpt>
      <trkpt lat="42.42501" lon="0.07624">
        <ele>614.2</ele>
        <time>2016-07-24T08:08:49Z</time>
      </trkpt>
      <trkpt lat="42.42496" lon="0.07625">
        <ele>614.6</ele>
        <time>2016-07-24T08:08:51Z</time>
      </trkpt>
      <trkpt lat="42.42491" lon="0.07626">
        <ele>615</ele>
        <time>2016-07-24T08:08:53Z</time>
      </trkpt>
      <trkpt lat="42.42488" lon="0.07627">
        <ele>615.4</ele>
        <time>2016-07-24T08:08:54Z</time>
      </trkpt>
      <trkpt lat="42.42484" lon="0.07628">
        <ele>615.7</ele>
        <time>2016-07-24T08:08:55Z</time>
      </trkpt>
      <trkpt lat="42.42481" lon="0.07629">
        <ele>616</ele>
        <time>2016-07-24T08:08:56Z</time>
      </trkpt>
      <trkpt lat="42.42476" lon="0.0763">
        <ele>616.5</ele>
        <time>2016-07-24T08:08:58Z</time>
      </trkpt>
      <trkpt lat="42.42472" lon="0.07628">
        <ele>617.2</ele>
        <time>2016-07-24T08:09:00Z</time>
      </trkpt>
      <trkpt lat="42.42469" lon="0.07625">
        <ele>617.7</ele>
        <time>2016-07-24T08:09:01Z</time>
      </trkpt>
      <trkpt lat="42.42467" lon="0.07623">
        <ele>618.4</ele>
        <time>2016-07-24T08:09:02Z</time>
      </trkpt>
      <trkpt lat="42.42464" lon="0.07621">
        <ele>619.2</ele>
        <time>2016-07-24T08:09:03Z</time>
      </trkpt>
      <trkpt lat="42.4246" lon="0.07617">
        <ele>620.5</ele>
        <time>2016-07-24T08:09:05Z</time>
      </trkpt>
      <trkpt lat="42.42458" lon="0.07613">
        <ele>621.6</ele>
        <time>2016-07-24T08:09:07Z</time>
      </trkpt>
      <trkpt lat="42.42455" lon="0.07609">
        <ele>622.5</ele>
        <time>2016-07-24T08:09:09Z</time>
      </trkpt>
      <trkpt lat="42.42452" lon="0.07604">
        <ele>623.7</ele>
        <time>2016-07-24T08:09:11Z</time>
      </trkpt>
      <trkpt lat="42.42448" lon="0.076">
        <ele>624.6</ele>
        <time>2016-07-24T08:09:13Z</time>
      </trkpt>
      <trkpt lat="42.42445" lon="0.07598">
        <ele>624.9</ele>
        <time>2016-07-24T08:09:15Z</time>
      </trkpt>
      <trkpt lat="42.42441" lon="0.076">
        <ele>624.6</ele>
        <time>2016-07-24T08:09:17Z</time>
      </trkpt>
      <trkpt lat="42.42437" lon="0.07601">
        <ele>624.4</ele>
        <time>2016-07-24T08:09:19Z</time>
      </trkpt>
      <trkpt lat="42.42433" lon="0.07603">
        <ele>624</ele>
        <time>2016-07-24T08:09:21Z</time>
      </trkpt>
      <trkpt lat="42.4243" lon="0.07606">
        <ele>623.4</ele>
        <time>2016-07-24T08:09:23Z</time>
      </trkpt>
      <trkpt lat="42.42426" lon="0.07608">
        <ele>623</ele>
        <time>2016-07-24T08:09:25Z</time>
      </trkpt>
      <trkpt lat="42.42423" lon="0.07609">
        <ele>622.7</ele>
        <time>2016-07-24T08:09:27Z</time>
      </trkpt>
      <trkpt lat="42.4242" lon="0.0761">
        <ele>622.4</ele>
        <time>2016-07-24T08:09:29Z</time>
      </trkpt>
      <trkpt lat="42.42417" lon="0.07612">
        <ele>622.1</ele>
        <time>2016-07-24T08:09:31Z</time>
      </trkpt>
      <trkpt lat="42.42414" lon="0.07613">
        <ele>621.9</ele>
        <time>2016-07-24T08:09:33Z</time>
      </trkpt>
      <trkpt lat="42.42411" lon="0.07612">
        <ele>622.1</ele>
        <time>2016-07-24T08:09:35Z</time>
      </trkpt>
      <trkpt lat="42.42407" lon="0.07612">
        <ele>622.1</ele>
        <time>2016-07-24T08:09:37Z</time>
      </trkpt>
      <trkpt lat="42.42404" lon="0.07613">
        <ele>621.9</ele>
        <time>2016-07-24T08:09:39Z</time>
      </trkpt>
      <trkpt lat="42.42401" lon="0.07612">
        <ele>622</ele>
        <time>2016-07-24T08:09:41Z</time>
      </trkpt>
      <trkpt lat="42.42398" lon="0.07611">
        <ele>622.3</ele>
        <time>2016-07-24T08:09:43Z</time>
      </trkpt>
      <trkpt lat="42.42395" lon="0.0761">
        <ele>622.6</ele>
        <time>2016-07-24T08:09:45Z</time>
      </trkpt>
      <trkpt lat="42.42392" lon="0.07609">
        <ele>622.8</ele>
        <time>2016-07-24T08:09:47Z</time>
      </trkpt>
      <trkpt lat="42.42389" lon="0.07609">
        <ele>623</ele>
        <time>2016-07-24T08:09:50Z</time>
      </trkpt>
      <trkpt lat="42.42385" lon="0.07607">
        <ele>623.5</ele>
        <time>2016-07-24T08:09:53Z</time>
      </trkpt>
      <trkpt lat="42.42383" lon="0.07604">
        <ele>624.1</ele>
        <time>2016-07-24T08:09:55Z</time>
      </trkpt>
      <trkpt lat="42.42381" lon="0.076">
        <ele>625.2</ele>
        <time>2016-07-24T08:09:58Z</time>
      </trkpt>
      <trkpt lat="42.42379" lon="0.07596">
        <ele>626.4</ele>
        <time>2016-07-24T08:10:01Z</time>
      </trkpt>
      <trkpt lat="42.42377" lon="0.07591">
        <ele>627.5</ele>
        <time>2016-07-24T08:10:04Z</time>
      </trkpt>
      <trkpt lat="42.42375" lon="0.07587">
        <ele>628.5</ele>
        <time>2016-07-24T08:10:07Z</time>
      </trkpt>
      <trkpt lat="42.42372" lon="0.07583">
        <ele>629.4</ele>
        <time>2016-07-24T08:10:10Z</time>
      </trkpt>
      <trkpt lat="42.4237" lon="0.07581">
        <ele>629.8</ele>
        <time>2016-07-24T08:10:12Z</time>
      </trkpt>
      <trkpt lat="42.42368" lon="0.07579">
        <ele>630.2</ele>
        <time>2016-07-24T08:10:14Z</time>
      </trkpt>
      <trkpt lat="42.42365" lon="0.07577">
        <ele>630.5</ele>
        <time>2016-07-24T08:10:16Z</time>
      </trkpt>
      <trkpt lat="42.42363" lon="0.07575">
        <ele>630.8</ele>
        <time>2016-07-24T08:10:18Z</time>
      </trkpt>
      <trkpt lat="42.4236" lon="0.07572">
        <ele>631.3</ele>
        <time>2016-07-24T08:10:21Z</time>
      </trkpt>
      <trkpt lat="42.42357" lon="0.07568">
        <ele>631.9</ele>
        <time>2016-07-24T08:10:24Z</time>
      </trkpt>
      <trkpt lat="42.42355" lon="0.07563">
        <ele>632.9</ele>
        <time>2016-07-24T08:10:27Z</time>
      </trkpt>
      <trkpt lat="42.42352" lon="0.07561">
        <ele>633.1</ele>
        <time>2016-07-24T08:10:30Z</time>
      </trkpt>
      <trkpt lat="42.42348" lon="0.07561">
        <ele>632.8</ele>
        <time>2016-07-24T08:10:33Z</time>
      </trkpt>
      <trkpt lat="42.42345" lon="0.07559">
        <ele>632.9</ele>
        <time>2016-07-24T08:10:35Z</time>
      </trkpt>
      <trkpt lat="42.42342" lon="0.07555">
        <ele>633.5</ele>
        <time>2016-07-24T08:10:38Z</time>
      </trkpt>
      <trkpt lat="42.42341" lon="0.07553">
        <ele>634</ele>
        <time>2016-07-24T08:10:40Z</time>
      </trkpt>
      <trkpt lat="42.42338" lon="0.07548">
        <ele>634.6</ele>
        <time>2016-07-24T08:10:43Z</time>
      </trkpt>
      <trkpt lat="42.42336" lon="0.07544">
        <ele>635.2</ele>
        <time>2016-07-24T08:10:46Z</time>
      </trkpt>
      <trkpt lat="42.42333" lon="0.07541">
        <ele>635.6</ele>
        <time>2016-07-24T08:10:49Z</time>
      </trkpt>
      <trkpt lat="42.4233" lon="0.07537">
        <ele>635.8</ele>
        <time>2016-07-24T08:10:52Z</time>
      </trkpt>
      <trkpt lat="42.42328" lon="0.07534">
        <ele>636.1</ele>
        <time>2016-07-24T08:10:54Z</time>
      </trkpt>
      <trkpt lat="42.42326" lon="0.07531">
        <ele>636.4</ele>
        <time>2016-07-24T08:10:56Z</time>
      </trkpt>
      <trkpt lat="42.42324" lon="0.07529">
        <ele>636.6</ele>
        <time>2016-07-24T08:10:58Z</time>
      </trkpt>
      <trkpt lat="42.42321" lon="0.07526">
        <ele>636.8</ele>
        <time>2016-07-24T08:11:00Z</time>
      </trkpt>
      <trkpt lat="42.42319" lon="0.07523">
        <ele>637</ele>
        <time>2016-07-24T08:11:02Z</time>
      </trkpt>
      <trkpt lat="42.42316" lon="0.07521">
        <ele>637.2</ele>
        <time>2016-07-24T08:11:04Z</time>
      </trkpt>
      <trkpt lat="42.42315" lon="0.07517">
        <ele>637.9</ele>
        <time>2016-07-24T08:11:07Z</time>
      </trkpt>
      <trkpt lat="42.42313" lon="0.07512">
        <ele>638.6</ele>
        <time>2016-07-24T08:11:10Z</time>
      </trkpt>
      <trkpt lat="42.4231" lon="0.07509">
        <ele>638.9</ele>
        <time>2016-07-24T08:11:12Z</time>
      </trkpt>
      <trkpt lat="42.42308" lon="0.07507">
        <ele>639.1</ele>
        <time>2016-07-24T08:11:14Z</time>
      </trkpt>
      <trkpt lat="42.42306" lon="0.07505">
        <ele>639.4</ele>
        <time>2016-07-24T08:11:16Z</time>
      </trkpt>
      <trkpt lat="42.42304" lon="0.07503">
        <ele>639.6</ele>
        <time>2016-07-24T08:11:18Z</time>
      </trkpt>
      <trkpt lat="42.42301" lon="0.07501">
        <ele>639.9</ele>
        <time>2016-07-24T08:11:20Z</time>
      </trkpt>
      <trkpt lat="42.42299" lon="0.07499">
        <ele>640.1</ele>
        <time>2016-07-24T08:11:22Z</time>
      </trkpt>
      <trkpt lat="42.42297" lon="0.07497">
        <ele>640.5</ele>
        <time>2016-07-24T08:11:24Z</time>
      </trkpt>
      <trkpt lat="42.42294" lon="0.07493">
        <ele>641.1</ele>
        <time>2016-07-24T08:11:27Z</time>
      </trkpt>
      <trkpt lat="42.42292" lon="0.07489">
        <ele>641.7</ele>
        <time>2016-07-24T08:11:30Z</time>
      </trkpt>
      <trkpt lat="42.42288" lon="0.07487">
        <ele>642.2</ele>
        <time>2016-07-24T08:11:33Z</time>
      </trkpt>
      <trkpt lat="42.42286" lon="0.07485">
        <ele>642.6</ele>
        <time>2016-07-24T08:11:35Z</time>
      </trkpt>
      <trkpt lat="42.42283" lon="0.07483">
        <ele>642.9</ele>
        <time>2016-07-24T08:11:37Z</time>
      </trkpt>
      <trkpt lat="42.4228" lon="0.07481">
        <ele>643.2</ele>
        <time>2016-07-24T08:11:39Z</time>
      </trkpt>
      <trkpt lat="42.42278" lon="0.07479">
        <ele>643.8</ele>
        <time>2016-07-24T08:11:41Z</time>
      </trkpt>
      <trkpt lat="42.42276" lon="0.07476">
        <ele>644.3</ele>
        <time>2016-07-24T08:11:43Z</time>
      </trkpt>
      <trkpt lat="42.42274" lon="0.07473">
        <ele>644.9</ele>
        <time>2016-07-24T08:11:45Z</time>
      </trkpt>
      <trkpt lat="42.42272" lon="0.0747">
        <ele>645.6</ele>
        <time>2016-07-24T08:11:47Z</time>
      </trkpt>
      <trkpt lat="42.4227" lon="0.07467">
        <ele>646.3</ele>
        <time>2016-07-24T08:11:49Z</time>
      </trkpt>
      <trkpt lat="42.42269" lon="0.07464">
        <ele>647</ele>
        <time>2016-07-24T08:11:51Z</time>
      </trkpt>
      <trkpt lat="42.42267" lon="0.07459">
        <ele>648.2</ele>
        <time>2016-07-24T08:11:54Z</time>
      </trkpt>
      <trkpt lat="42.42265" lon="0.07455">
        <ele>648.7</ele>
        <time>2016-07-24T08:11:57Z</time>
      </trkpt>
      <trkpt lat="42.42263" lon="0.07452">
        <ele>649.1</ele>
        <time>2016-07-24T08:11:59Z</time>
      </trkpt>
      <trkpt lat="42.42262" lon="0.07449">
        <ele>649.6</ele>
        <time>2016-07-24T08:12:01Z</time>
      </trkpt>
      <trkpt lat="42.4226" lon="0.07444">
        <ele>650.2</ele>
        <time>2016-07-24T08:12:04Z</time>
      </trkpt>
      <trkpt lat="42.42259" lon="0.0744">
        <ele>650.6</ele>
        <time>2016-07-24T08:12:06Z</time>
      </trkpt>
      <trkpt lat="42.42258" lon="0.07436">
        <ele>651</ele>
        <time>2016-07-24T08:12:08Z</time>
      </trkpt>
      <trkpt lat="42.42258" lon="0.07431">
        <ele>651.7</ele>
        <time>2016-07-24T08:12:11Z</time>
      </trkpt>
      <trkpt lat="42.42257" lon="0.07426">
        <ele>652.2</ele>
        <time>2016-07-24T08:12:14Z</time>
      </trkpt>
      <trkpt lat="42.42255" lon="0.07424">
        <ele>652.5</ele>
        <time>2016-07-24T08:12:16Z</time>
      </trkpt>
      <trkpt lat="42.42251" lon="0.07422">
        <ele>652.6</ele>
        <time>2016-07-24T08:12:19Z</time>
      </trkpt>
      <trkpt lat="42.42248" lon="0.0742">
        <ele>652.8</ele>
        <time>2016-07-24T08:12:21Z</time>
      </trkpt>
      <trkpt lat="42.42246" lon="0.07418">
        <ele>653</ele>
        <time>2016-07-24T08:12:23Z</time>
      </trkpt>
      <trkpt lat="42.42243" lon="0.07417">
        <ele>653.1</ele>
        <time>2016-07-24T08:12:25Z</time>
      </trkpt>
      <trkpt lat="42.4224" lon="0.07412">
        <ele>653.5</ele>
        <time>2016-07-24T08:12:28Z</time>
      </trkpt>
      <trkpt lat="42.42239" lon="0.07408">
        <ele>653.9</ele>
        <time>2016-07-24T08:12:30Z</time>
      </trkpt>
      <trkpt lat="42.4224" lon="0.07403">
        <ele>654.5</ele>
        <time>2016-07-24T08:12:33Z</time>
      </trkpt>
      <trkpt lat="42.42239" lon="0.07399">
        <ele>654.9</ele>
        <time>2016-07-24T08:12:35Z</time>
      </trkpt>
      <trkpt lat="42.42238" lon="0.07396">
        <ele>655.3</ele>
        <time>2016-07-24T08:12:37Z</time>
      </trkpt>
      <trkpt lat="42.42238" lon="0.07391">
        <ele>655.8</ele>
        <time>2016-07-24T08:12:40Z</time>
      </trkpt>
      <trkpt lat="42.42238" lon="0.07386">
        <ele>656.3</ele>
        <time>2016-07-24T08:12:43Z</time>
      </trkpt>
      <trkpt lat="42.42236" lon="0.07382">
        <ele>656.6</ele>
        <time>2016-07-24T08:12:45Z</time>
      </trkpt>
      <trkpt lat="42.42236" lon="0.07377">
        <ele>657.1</ele>
        <time>2016-07-24T08:12:48Z</time>
      </trkpt>
      <trkpt lat="42.42235" lon="0.07372">
        <ele>657.7</ele>
        <time>2016-07-24T08:12:51Z</time>
      </trkpt>
      <trkpt lat="42.42234" lon="0.07367">
        <ele>658.3</ele>
        <time>2016-07-24T08:12:54Z</time>
      </trkpt>
      <trkpt lat="42.42234" lon="0.07364">
        <ele>658.8</ele>
        <time>2016-07-24T08:12:56Z</time>
      </trkpt>
      <trkpt lat="42.42233" lon="0.0736">
        <ele>659.2</ele>
        <time>2016-07-24T08:12:58Z</time>
      </trkpt>
      <trkpt lat="42.42232" lon="0.07357">
        <ele>659.6</ele>
        <time>2016-07-24T08:13:00Z</time>
      </trkpt>
      <trkpt lat="42.42233" lon="0.07351">
        <ele>660.4</ele>
        <time>2016-07-24T08:13:03Z</time>
      </trkpt>
      <trkpt lat="42.42233" lon="0.07347">
        <ele>661</ele>
        <time>2016-07-24T08:13:05Z</time>
      </trkpt>
      <trkpt lat="42.42233" lon="0.07343">
        <ele>661.6</ele>
        <time>2016-07-24T08:13:07Z</time>
      </trkpt>
      <trkpt lat="42.42235" lon="0.07338">
        <ele>662.3</ele>
        <time>2016-07-24T08:13:09Z</time>
      </trkpt>
      <trkpt lat="42.42236" lon="0.07334">
        <ele>662.9</ele>
        <time>2016-07-24T08:13:11Z</time>
      </trkpt>
      <trkpt lat="42.42237" lon="0.07329">
        <ele>663.6</ele>
        <time>2016-07-24T08:13:13Z</time>
      </trkpt>
      <trkpt lat="42.42237" lon="0.07325">
        <ele>664.2</ele>
        <time>2016-07-24T08:13:15Z</time>
      </trkpt>
      <trkpt lat="42.42238" lon="0.07322">
        <ele>664.7</ele>
        <time>2016-07-24T08:13:17Z</time>
      </trkpt>
      <trkpt lat="42.4224" lon="0.07318">
        <ele>665.2</ele>
        <time>2016-07-24T08:13:19Z</time>
      </trkpt>
      <trkpt lat="42.4224" lon="0.07315">
        <ele>665.8</ele>
        <time>2016-07-24T08:13:21Z</time>
      </trkpt>
      <trkpt lat="42.42239" lon="0.07311">
        <ele>666.3</ele>
        <time>2016-07-24T08:13:23Z</time>
      </trkpt>
      <trkpt lat="42.42237" lon="0.07307">
        <ele>666.7</ele>
        <time>2016-07-24T08:13:25Z</time>
      </trkpt>
      <trkpt lat="42.42235" lon="0.07303">
        <ele>667</ele>
        <time>2016-07-24T08:13:27Z</time>
      </trkpt>
      <trkpt lat="42.42233" lon="0.073">
        <ele>667.4</ele>
        <time>2016-07-24T08:13:29Z</time>
      </trkpt>
      <trkpt lat="42.42231" lon="0.07296">
        <ele>667.7</ele>
        <time>2016-07-24T08:13:31Z</time>
      </trkpt>
      <trkpt lat="42.42229" lon="0.07293">
        <ele>668.1</ele>
        <time>2016-07-24T08:13:33Z</time>
      </trkpt>
      <trkpt lat="42.42226" lon="0.07289">
        <ele>668.6</ele>
        <time>2016-07-24T08:13:35Z</time>
      </trkpt>
      <trkpt lat="42.42224" lon="0.07285">
        <ele>669.1</ele>
        <time>2016-07-24T08:13:37Z</time>
      </trkpt>
      <trkpt lat="42.42222" lon="0.07282">
        <ele>669.6</ele>
        <time>2016-07-24T08:13:39Z</time>
      </trkpt>
      <trkpt lat="42.4222" lon="0.07278">
        <ele>670.1</ele>
        <time>2016-07-24T08:13:41Z</time>
      </trkpt>
      <trkpt lat="42.42217" lon="0.07274">
        <ele>670.6</ele>
        <time>2016-07-24T08:13:43Z</time>
      </trkpt>
      <trkpt lat="42.42215" lon="0.0727">
        <ele>671.2</ele>
        <time>2016-07-24T08:13:45Z</time>
      </trkpt>
      <trkpt lat="42.42213" lon="0.07264">
        <ele>672</ele>
        <time>2016-07-24T08:13:47Z</time>
      </trkpt>
      <trkpt lat="42.42211" lon="0.07259">
        <ele>672.7</ele>
        <time>2016-07-24T08:13:49Z</time>
      </trkpt>
      <trkpt lat="42.42209" lon="0.07254">
        <ele>673.5</ele>
        <time>2016-07-24T08:13:51Z</time>
      </trkpt>
      <trkpt lat="42.42208" lon="0.07249">
        <ele>674.1</ele>
        <time>2016-07-24T08:13:53Z</time>
      </trkpt>
      <trkpt lat="42.42206" lon="0.07244">
        <ele>674.6</ele>
        <time>2016-07-24T08:13:55Z</time>
      </trkpt>
      <trkpt lat="42.42204" lon="0.07239">
        <ele>675.1</ele>
        <time>2016-07-24T08:13:57Z</time>
      </trkpt>
      <trkpt lat="42.42202" lon="0.07235">
        <ele>675.4</ele>
        <time>2016-07-24T08:13:59Z</time>
      </trkpt>
      <trkpt lat="42.422" lon="0.0723">
        <ele>675.9</ele>
        <time>2016-07-24T08:14:01Z</time>
      </trkpt>
      <trkpt lat="42.42199" lon="0.07225">
        <ele>676.4</ele>
        <time>2016-07-24T08:14:03Z</time>
      </trkpt>
      <trkpt lat="42.42197" lon="0.07221">
        <ele>676.9</ele>
        <time>2016-07-24T08:14:05Z</time>
      </trkpt>
      <trkpt lat="42.42194" lon="0.07216">
        <ele>677.2</ele>
        <time>2016-07-24T08:14:07Z</time>
      </trkpt>
      <trkpt lat="42.4219" lon="0.07211">
        <ele>677.4</ele>
        <time>2016-07-24T08:14:09Z</time>
      </trkpt>
      <trkpt lat="42.42186" lon="0.07207">
        <ele>677.4</ele>
        <time>2016-07-24T08:14:11Z</time>
      </trkpt>
      <trkpt lat="42.42182" lon="0.07203">
        <ele>677.3</ele>
        <time>2016-07-24T08:14:13Z</time>
      </trkpt>
      <trkpt lat="42.42177" lon="0.07199">
        <ele>677.1</ele>
        <time>2016-07-24T08:14:15Z</time>
      </trkpt>
      <trkpt lat="42.42174" lon="0.07198">
        <ele>676.9</ele>
        <time>2016-07-24T08:14:16Z</time>
      </trkpt>
      <trkpt lat="42.42172" lon="0.07196">
        <ele>676.8</ele>
        <time>2016-07-24T08:14:17Z</time>
      </trkpt>
      <trkpt lat="42.42169" lon="0.07194">
        <ele>676.7</ele>
        <time>2016-07-24T08:14:18Z</time>
      </trkpt>
      <trkpt lat="42.42165" lon="0.0719">
        <ele>676.6</ele>
        <time>2016-07-24T08:14:20Z</time>
      </trkpt>
      <trkpt lat="42.42161" lon="0.07187">
        <ele>676.4</ele>
        <time>2016-07-24T08:14:22Z</time>
      </trkpt>
      <trkpt lat="42.42156" lon="0.07183">
        <ele>676.2</ele>
        <time>2016-07-24T08:14:24Z</time>
      </trkpt>
      <trkpt lat="42.42152" lon="0.07181">
        <ele>675.9</ele>
        <time>2016-07-24T08:14:26Z</time>
      </trkpt>
      <trkpt lat="42.42149" lon="0.07179">
        <ele>675.7</ele>
        <time>2016-07-24T08:14:27Z</time>
      </trkpt>
      <trkpt lat="42.42146" lon="0.07178">
        <ele>675.4</ele>
        <time>2016-07-24T08:14:28Z</time>
      </trkpt>
      <trkpt lat="42.42143" lon="0.07177">
        <ele>675.2</ele>
        <time>2016-07-24T08:14:29Z</time>
      </trkpt>
      <trkpt lat="42.4214" lon="0.07176">
        <ele>674.9</ele>
        <time>2016-07-24T08:14:30Z</time>
      </trkpt>
      <trkpt lat="42.42137" lon="0.07174">
        <ele>674.7</ele>
        <time>2016-07-24T08:14:31Z</time>
      </trkpt>
      <trkpt lat="42.42134" lon="0.07172">
        <ele>674.5</ele>
        <time>2016-07-24T08:14:32Z</time>
      </trkpt>
      <trkpt lat="42.42131" lon="0.07171">
        <ele>674.3</ele>
        <time>2016-07-24T08:14:33Z</time>
      </trkpt>
      <trkpt lat="42.42128" lon="0.07169">
        <ele>674.1</ele>
        <time>2016-07-24T08:14:34Z</time>
      </trkpt>
      <trkpt lat="42.42125" lon="0.07167">
        <ele>674</ele>
        <time>2016-07-24T08:14:35Z</time>
      </trkpt>
      <trkpt lat="42.42123" lon="0.07165">
        <ele>674.2</ele>
        <time>2016-07-24T08:14:36Z</time>
      </trkpt>
      <trkpt lat="42.4212" lon="0.07162">
        <ele>674.5</ele>
        <time>2016-07-24T08:14:37Z</time>
      </trkpt>
      <trkpt lat="42.42117" lon="0.07159">
        <ele>674.8</ele>
        <time>2016-07-24T08:14:38Z</time>
      </trkpt>
      <trkpt lat="42.42115" lon="0.07156">
        <ele>675.2</ele>
        <time>2016-07-24T08:14:39Z</time>
      </trkpt>
      <trkpt lat="42.42113" lon="0.07152">
        <ele>675.7</ele>
        <time>2016-07-24T08:14:40Z</time>
      </trkpt>
      <trkpt lat="42.42111" lon="0.07149">
        <ele>676.2</ele>
        <time>2016-07-24T08:14:41Z</time>
      </trkpt>
      <trkpt lat="42.4211" lon="0.07145">
        <ele>676.7</ele>
        <time>2016-07-24T08:14:42Z</time>
      </trkpt>
      <trkpt lat="42.42111" lon="0.07139">
        <ele>677.8</ele>
        <time>2016-07-24T08:14:44Z</time>
      </trkpt>
      <trkpt lat="42.42112" lon="0.07135">
        <ele>678.4</ele>
        <time>2016-07-24T08:14:45Z</time>
      </trkpt>
      <trkpt lat="42.42114" lon="0.07132">
        <ele>679.1</ele>
        <time>2016-07-24T08:14:46Z</time>
      </trkpt>
      <trkpt lat="42.42116" lon="0.07129">
        <ele>679.7</ele>
        <time>2016-07-24T08:14:47Z</time>
      </trkpt>
      <trkpt lat="42.42117" lon="0.07126">
        <ele>680.3</ele>
        <time>2016-07-24T08:14:48Z</time>
      </trkpt>
      <trkpt lat="42.42119" lon="0.07119">
        <ele>681.5</ele>
        <time>2016-07-24T08:14:50Z</time>
      </trkpt>
      <trkpt lat="42.42121" lon="0.07113">
        <ele>682.5</ele>
        <time>2016-07-24T08:14:52Z</time>
      </trkpt>
      <trkpt lat="42.42123" lon="0.07108">
        <ele>683.5</ele>
        <time>2016-07-24T08:14:54Z</time>
      </trkpt>
      <trkpt lat="42.42125" lon="0.07103">
        <ele>684.5</ele>
        <time>2016-07-24T08:14:56Z</time>
      </trkpt>
      <trkpt lat="42.42127" lon="0.07098">
        <ele>685.5</ele>
        <time>2016-07-24T08:14:58Z</time>
      </trkpt>
      <trkpt lat="42.42129" lon="0.07093">
        <ele>686.6</ele>
        <time>2016-07-24T08:15:00Z</time>
      </trkpt>
      <trkpt lat="42.4213" lon="0.07087">
        <ele>687.7</ele>
        <time>2016-07-24T08:15:02Z</time>
      </trkpt>
      <trkpt lat="42.42132" lon="0.07082">
        <ele>688.7</ele>
        <time>2016-07-24T08:15:04Z</time>
      </trkpt>
      <trkpt lat="42.42133" lon="0.07077">
        <ele>689.7</ele>
        <time>2016-07-24T08:15:06Z</time>
      </trkpt>
      <trkpt lat="42.42135" lon="0.07074">
        <ele>690.4</ele>
        <time>2016-07-24T08:15:08Z</time>
      </trkpt>
      <trkpt lat="42.42136" lon="0.0707">
        <ele>691.2</ele>
        <time>2016-07-24T08:15:10Z</time>
      </trkpt>
      <trkpt lat="42.42136" lon="0.07066">
        <ele>691.8</ele>
        <time>2016-07-24T08:15:12Z</time>
      </trkpt>
      <trkpt lat="42.42134" lon="0.07063">
        <ele>692</ele>
        <time>2016-07-24T08:15:14Z</time>
      </trkpt>
      <trkpt lat="42.4213" lon="0.0706">
        <ele>691.9</ele>
        <time>2016-07-24T08:15:16Z</time>
      </trkpt>
      <trkpt lat="42.42127" lon="0.07058">
        <ele>691.8</ele>
        <time>2016-07-24T08:15:18Z</time>
      </trkpt>
      <trkpt lat="42.42124" lon="0.07056">
        <ele>691.7</ele>
        <time>2016-07-24T08:15:20Z</time>
      </trkpt>
      <trkpt lat="42.42121" lon="0.07055">
        <ele>691.6</ele>
        <time>2016-07-24T08:15:22Z</time>
      </trkpt>
      <trkpt lat="42.42118" lon="0.07053">
        <ele>691.5</ele>
        <time>2016-07-24T08:15:24Z</time>
      </trkpt>
      <trkpt lat="42.42116" lon="0.07052">
        <ele>691.4</ele>
        <time>2016-07-24T08:15:26Z</time>
      </trkpt>
      <trkpt lat="42.42113" lon="0.07049">
        <ele>691.7</ele>
        <time>2016-07-24T08:15:28Z</time>
      </trkpt>
      <trkpt lat="42.42111" lon="0.07045">
        <ele>692</ele>
        <time>2016-07-24T08:15:30Z</time>
      </trkpt>
      <trkpt lat="42.42109" lon="0.07041">
        <ele>692.4</ele>
        <time>2016-07-24T08:15:32Z</time>
      </trkpt>
      <trkpt lat="42.42106" lon="0.07037">
        <ele>692.8</ele>
        <time>2016-07-24T08:15:34Z</time>
      </trkpt>
      <trkpt lat="42.42104" lon="0.07034">
        <ele>693.1</ele>
        <time>2016-07-24T08:15:36Z</time>
      </trkpt>
      <trkpt lat="42.42102" lon="0.0703">
        <ele>693.6</ele>
        <time>2016-07-24T08:15:38Z</time>
      </trkpt>
      <trkpt lat="42.421" lon="0.07026">
        <ele>694</ele>
        <time>2016-07-24T08:15:40Z</time>
      </trkpt>
      <trkpt lat="42.42097" lon="0.07022">
        <ele>694.6</ele>
        <time>2016-07-24T08:15:42Z</time>
      </trkpt>
      <trkpt lat="42.42096" lon="0.07018">
        <ele>695.1</ele>
        <time>2016-07-24T08:15:44Z</time>
      </trkpt>
      <trkpt lat="42.42093" lon="0.07013">
        <ele>695.7</ele>
        <time>2016-07-24T08:15:46Z</time>
      </trkpt>
      <trkpt lat="42.42091" lon="0.07008">
        <ele>696.3</ele>
        <time>2016-07-24T08:15:48Z</time>
      </trkpt>
      <trkpt lat="42.42089" lon="0.07004">
        <ele>696.9</ele>
        <time>2016-07-24T08:15:50Z</time>
      </trkpt>
      <trkpt lat="42.42087" lon="0.06999">
        <ele>697.4</ele>
        <time>2016-07-24T08:15:52Z</time>
      </trkpt>
      <trkpt lat="42.42085" lon="0.06995">
        <ele>697.9</ele>
        <time>2016-07-24T08:15:54Z</time>
      </trkpt>
      <trkpt lat="42.42083" lon="0.0699">
        <ele>698.4</ele>
        <time>2016-07-24T08:15:56Z</time>
      </trkpt>
      <trkpt lat="42.4208" lon="0.06985">
        <ele>698.9</ele>
        <time>2016-07-24T08:15:58Z</time>
      </trkpt>
      <trkpt lat="42.42077" lon="0.06981">
        <ele>699.3</ele>
        <time>2016-07-24T08:16:00Z</time>
      </trkpt>
      <trkpt lat="42.42075" lon="0.06977">
        <ele>699.6</ele>
        <time>2016-07-24T08:16:02Z</time>
      </trkpt>
      <trkpt lat="42.42072" lon="0.06973">
        <ele>699.9</ele>
        <time>2016-07-24T08:16:04Z</time>
      </trkpt>
      <trkpt lat="42.42068" lon="0.06969">
        <ele>700.1</ele>
        <time>2016-07-24T08:16:06Z</time>
      </trkpt>
      <trkpt lat="42.42065" lon="0.06965">
        <ele>700.2</ele>
        <time>2016-07-24T08:16:08Z</time>
      </trkpt>
      <trkpt lat="42.42061" lon="0.06961">
        <ele>700.4</ele>
        <time>2016-07-24T08:16:10Z</time>
      </trkpt>
      <trkpt lat="42.42058" lon="0.06956">
        <ele>700.9</ele>
        <time>2016-07-24T08:16:12Z</time>
      </trkpt>
      <trkpt lat="42.42056" lon="0.06951">
        <ele>701.8</ele>
        <time>2016-07-24T08:16:14Z</time>
      </trkpt>
      <trkpt lat="42.42055" lon="0.06946">
        <ele>702.9</ele>
        <time>2016-07-24T08:16:16Z</time>
      </trkpt>
      <trkpt lat="42.42052" lon="0.06942">
        <ele>703.6</ele>
        <time>2016-07-24T08:16:18Z</time>
      </trkpt>
      <trkpt lat="42.42049" lon="0.06938">
        <ele>704.2</ele>
        <time>2016-07-24T08:16:20Z</time>
      </trkpt>
      <trkpt lat="42.42044" lon="0.06933">
        <ele>704.6</ele>
        <time>2016-07-24T08:16:22Z</time>
      </trkpt>
      <trkpt lat="42.42042" lon="0.06931">
        <ele>704.8</ele>
        <time>2016-07-24T08:16:23Z</time>
      </trkpt>
      <trkpt lat="42.4204" lon="0.06929">
        <ele>705.2</ele>
        <time>2016-07-24T08:16:24Z</time>
      </trkpt>
      <trkpt lat="42.42037" lon="0.06927">
        <ele>705.6</ele>
        <time>2016-07-24T08:16:25Z</time>
      </trkpt>
      <trkpt lat="42.42034" lon="0.06924">
        <ele>705.9</ele>
        <time>2016-07-24T08:16:26Z</time>
      </trkpt>
      <trkpt lat="42.42032" lon="0.06923">
        <ele>706.1</ele>
        <time>2016-07-24T08:16:27Z</time>
      </trkpt>
      <trkpt lat="42.42027" lon="0.06921">
        <ele>706</ele>
        <time>2016-07-24T08:16:29Z</time>
      </trkpt>
      <trkpt lat="42.42022" lon="0.06919">
        <ele>706</ele>
        <time>2016-07-24T08:16:31Z</time>
      </trkpt>
      <trkpt lat="42.42018" lon="0.06917">
        <ele>706.2</ele>
        <time>2016-07-24T08:16:33Z</time>
      </trkpt>
      <trkpt lat="42.42014" lon="0.06914">
        <ele>706.3</ele>
        <time>2016-07-24T08:16:35Z</time>
      </trkpt>
      <trkpt lat="42.42009" lon="0.06911">
        <ele>706.5</ele>
        <time>2016-07-24T08:16:37Z</time>
      </trkpt>
      <trkpt lat="42.42005" lon="0.06908">
        <ele>706.8</ele>
        <time>2016-07-24T08:16:39Z</time>
      </trkpt>
      <trkpt lat="42.42002" lon="0.06904">
        <ele>707.3</ele>
        <time>2016-07-24T08:16:41Z</time>
      </trkpt>
      <trkpt lat="42.41999" lon="0.06901">
        <ele>707.7</ele>
        <time>2016-07-24T08:16:43Z</time>
      </trkpt>
      <trkpt lat="42.41996" lon="0.06898">
        <ele>707.9</ele>
        <time>2016-07-24T08:16:45Z</time>
      </trkpt>
      <trkpt lat="42.41993" lon="0.06894">
        <ele>708.2</ele>
        <time>2016-07-24T08:16:47Z</time>
      </trkpt>
      <trkpt lat="42.4199" lon="0.06891">
        <ele>708.4</ele>
        <time>2016-07-24T08:16:49Z</time>
      </trkpt>
      <trkpt lat="42.41987" lon="0.06888">
        <ele>708.7</ele>
        <time>2016-07-24T08:16:51Z</time>
      </trkpt>
      <trkpt lat="42.41984" lon="0.06885">
        <ele>708.8</ele>
        <time>2016-07-24T08:16:53Z</time>
      </trkpt>
      <trkpt lat="42.41981" lon="0.06882">
        <ele>709</ele>
        <time>2016-07-24T08:16:55Z</time>
      </trkpt>
      <trkpt lat="42.41979" lon="0.06878">
        <ele>709.4</ele>
        <time>2016-07-24T08:16:57Z</time>
      </trkpt>
      <trkpt lat="42.41977" lon="0.06875">
        <ele>709.8</ele>
        <time>2016-07-24T08:16:59Z</time>
      </trkpt>
      <trkpt lat="42.41975" lon="0.06871">
        <ele>710.4</ele>
        <time>2016-07-24T08:17:01Z</time>
      </trkpt>
      <trkpt lat="42.41973" lon="0.06867">
        <ele>710.9</ele>
        <time>2016-07-24T08:17:03Z</time>
      </trkpt>
      <trkpt lat="42.41972" lon="0.06864">
        <ele>711.4</ele>
        <time>2016-07-24T08:17:05Z</time>
      </trkpt>
      <trkpt lat="42.4197" lon="0.06859">
        <ele>712.1</ele>
        <time>2016-07-24T08:17:08Z</time>
      </trkpt>
      <trkpt lat="42.41969" lon="0.06855">
        <ele>712.9</ele>
        <time>2016-07-24T08:17:10Z</time>
      </trkpt>
      <trkpt lat="42.41968" lon="0.06851">
        <ele>713.6</ele>
        <time>2016-07-24T08:17:12Z</time>
      </trkpt>
      <trkpt lat="42.41968" lon="0.06847">
        <ele>714.4</ele>
        <time>2016-07-24T08:17:14Z</time>
      </trkpt>
      <trkpt lat="42.41967" lon="0.06843">
        <ele>715.1</ele>
        <time>2016-07-24T08:17:16Z</time>
      </trkpt>
      <trkpt lat="42.41965" lon="0.0684">
        <ele>715.7</ele>
        <time>2016-07-24T08:17:18Z</time>
      </trkpt>
      <trkpt lat="42.41964" lon="0.06836">
        <ele>716.4</ele>
        <time>2016-07-24T08:17:20Z</time>
      </trkpt>
      <trkpt lat="42.41963" lon="0.06832">
        <ele>717.1</ele>
        <time>2016-07-24T08:17:22Z</time>
      </trkpt>
      <trkpt lat="42.41963" lon="0.06828">
        <ele>717.8</ele>
        <time>2016-07-24T08:17:24Z</time>
      </trkpt>
      <trkpt lat="42.41962" lon="0.06823">
        <ele>718.7</ele>
        <time>2016-07-24T08:17:27Z</time>
      </trkpt>
      <trkpt lat="42.4196" lon="0.06819">
        <ele>719.5</ele>
        <time>2016-07-24T08:17:30Z</time>
      </trkpt>
      <trkpt lat="42.41958" lon="0.06814">
        <ele>720.2</ele>
        <time>2016-07-24T08:17:33Z</time>
      </trkpt>
      <trkpt lat="42.41957" lon="0.06811">
        <ele>720.8</ele>
        <time>2016-07-24T08:17:35Z</time>
      </trkpt>
      <trkpt lat="42.41956" lon="0.06807">
        <ele>721.6</ele>
        <time>2016-07-24T08:17:37Z</time>
      </trkpt>
      <trkpt lat="42.41956" lon="0.06803">
        <ele>722.4</ele>
        <time>2016-07-24T08:17:39Z</time>
      </trkpt>
      <trkpt lat="42.41956" lon="0.06799">
        <ele>723.3</ele>
        <time>2016-07-24T08:17:41Z</time>
      </trkpt>
      <trkpt lat="42.41955" lon="0.06795">
        <ele>724.1</ele>
        <time>2016-07-24T08:17:43Z</time>
      </trkpt>
      <trkpt lat="42.41954" lon="0.06791">
        <ele>725.1</ele>
        <time>2016-07-24T08:17:45Z</time>
      </trkpt>
      <trkpt lat="42.41953" lon="0.06786">
        <ele>726.2</ele>
        <time>2016-07-24T08:17:47Z</time>
      </trkpt>
      <trkpt lat="42.41952" lon="0.06782">
        <ele>727.2</ele>
        <time>2016-07-24T08:17:49Z</time>
      </trkpt>
      <trkpt lat="42.4195" lon="0.06778">
        <ele>728.2</ele>
        <time>2016-07-24T08:17:51Z</time>
      </trkpt>
      <trkpt lat="42.41947" lon="0.06773">
        <ele>729.6</ele>
        <time>2016-07-24T08:17:53Z</time>
      </trkpt>
      <trkpt lat="42.41943" lon="0.0677">
        <ele>730.2</ele>
        <time>2016-07-24T08:17:55Z</time>
      </trkpt>
      <trkpt lat="42.41938" lon="0.0677">
        <ele>729.9</ele>
        <time>2016-07-24T08:17:57Z</time>
      </trkpt>
      <trkpt lat="42.41934" lon="0.0677">
        <ele>729.6</ele>
        <time>2016-07-24T08:17:59Z</time>
      </trkpt>
      <trkpt lat="42.4193" lon="0.0677">
        <ele>729.3</ele>
        <time>2016-07-24T08:18:01Z</time>
      </trkpt>
      <trkpt lat="42.41926" lon="0.0677">
        <ele>728.8</ele>
        <time>2016-07-24T08:18:03Z</time>
      </trkpt>
      <trkpt lat="42.41923" lon="0.06771">
        <ele>728.3</ele>
        <time>2016-07-24T08:18:05Z</time>
      </trkpt>
      <trkpt lat="42.41919" lon="0.06772">
        <ele>727.9</ele>
        <time>2016-07-24T08:18:07Z</time>
      </trkpt>
      <trkpt lat="42.41916" lon="0.06771">
        <ele>727.8</ele>
        <time>2016-07-24T08:18:09Z</time>
      </trkpt>
      <trkpt lat="42.41912" lon="0.06771">
        <ele>727.8</ele>
        <time>2016-07-24T08:18:11Z</time>
      </trkpt>
      <trkpt lat="42.41909" lon="0.06769">
        <ele>728</ele>
        <time>2016-07-24T08:18:13Z</time>
      </trkpt>
      <trkpt lat="42.41906" lon="0.06767">
        <ele>728.4</ele>
        <time>2016-07-24T08:18:15Z</time>
      </trkpt>
      <trkpt lat="42.41903" lon="0.06764">
        <ele>729</ele>
        <time>2016-07-24T08:18:17Z</time>
      </trkpt>
      <trkpt lat="42.419" lon="0.06762">
        <ele>729.4</ele>
        <time>2016-07-24T08:18:19Z</time>
      </trkpt>
      <trkpt lat="42.41896" lon="0.06759">
        <ele>729.9</ele>
        <time>2016-07-24T08:18:21Z</time>
      </trkpt>
      <trkpt lat="42.41891" lon="0.06756">
        <ele>730.4</ele>
        <time>2016-07-24T08:18:23Z</time>
      </trkpt>
      <trkpt lat="42.41887" lon="0.06753">
        <ele>731</ele>
        <time>2016-07-24T08:18:25Z</time>
      </trkpt>
      <trkpt lat="42.41883" lon="0.0675">
        <ele>731.6</ele>
        <time>2016-07-24T08:18:27Z</time>
      </trkpt>
      <trkpt lat="42.41878" lon="0.06747">
        <ele>732.2</ele>
        <time>2016-07-24T08:18:29Z</time>
      </trkpt>
      <trkpt lat="42.41876" lon="0.06745">
        <ele>732.5</ele>
        <time>2016-07-24T08:18:30Z</time>
      </trkpt>
      <trkpt lat="42.41872" lon="0.06741">
        <ele>733.8</ele>
        <time>2016-07-24T08:18:32Z</time>
      </trkpt>
      <trkpt lat="42.41868" lon="0.06737">
        <ele>735.1</ele>
        <time>2016-07-24T08:18:34Z</time>
      </trkpt>
      <trkpt lat="42.41864" lon="0.06733">
        <ele>736</ele>
        <time>2016-07-24T08:18:36Z</time>
      </trkpt>
      <trkpt lat="42.4186" lon="0.0673">
        <ele>737</ele>
        <time>2016-07-24T08:18:38Z</time>
      </trkpt>
      <trkpt lat="42.41857" lon="0.06725">
        <ele>738.3</ele>
        <time>2016-07-24T08:18:40Z</time>
      </trkpt>
      <trkpt lat="42.41854" lon="0.06722">
        <ele>739.2</ele>
        <time>2016-07-24T08:18:42Z</time>
      </trkpt>
      <trkpt lat="42.41851" lon="0.06719">
        <ele>739.9</ele>
        <time>2016-07-24T08:18:44Z</time>
      </trkpt>
      <trkpt lat="42.41848" lon="0.06715">
        <ele>740.8</ele>
        <time>2016-07-24T08:18:46Z</time>
      </trkpt>
      <trkpt lat="42.41846" lon="0.06711">
        <ele>741.6</ele>
        <time>2016-07-24T08:18:48Z</time>
      </trkpt>
      <trkpt lat="42.41843" lon="0.06708">
        <ele>742.2</ele>
        <time>2016-07-24T08:18:50Z</time>
      </trkpt>
      <trkpt lat="42.41841" lon="0.06705">
        <ele>743.1</ele>
        <time>2016-07-24T08:18:52Z</time>
      </trkpt>
      <trkpt lat="42.41839" lon="0.06701">
        <ele>744.4</ele>
        <time>2016-07-24T08:18:55Z</time>
      </trkpt>
      <trkpt lat="42.41835" lon="0.06699">
        <ele>745</ele>
        <time>2016-07-24T08:18:57Z</time>
      </trkpt>
      <trkpt lat="42.4183" lon="0.06697">
        <ele>745.4</ele>
        <time>2016-07-24T08:18:59Z</time>
      </trkpt>
      <trkpt lat="42.41826" lon="0.06696">
        <ele>745.6</ele>
        <time>2016-07-24T08:19:01Z</time>
      </trkpt>
      <trkpt lat="42.41821" lon="0.06695">
        <ele>745.7</ele>
        <time>2016-07-24T08:19:03Z</time>
      </trkpt>
      <trkpt lat="42.41817" lon="0.06693">
        <ele>746.1</ele>
        <time>2016-07-24T08:19:05Z</time>
      </trkpt>
      <trkpt lat="42.41813" lon="0.06691">
        <ele>746.6</ele>
        <time>2016-07-24T08:19:07Z</time>
      </trkpt>
      <trkpt lat="42.41809" lon="0.06689">
        <ele>747.2</ele>
        <time>2016-07-24T08:19:09Z</time>
      </trkpt>
      <trkpt lat="42.41805" lon="0.06687">
        <ele>747.7</ele>
        <time>2016-07-24T08:19:11Z</time>
      </trkpt>
      <trkpt lat="42.41802" lon="0.06686">
        <ele>747.8</ele>
        <time>2016-07-24T08:19:13Z</time>
      </trkpt>
      <trkpt lat="42.41798" lon="0.06685">
        <ele>748</ele>
        <time>2016-07-24T08:19:15Z</time>
      </trkpt>
      <trkpt lat="42.41794" lon="0.06684">
        <ele>748.2</ele>
        <time>2016-07-24T08:19:17Z</time>
      </trkpt>
      <trkpt lat="42.41791" lon="0.06683">
        <ele>748.3</ele>
        <time>2016-07-24T08:19:19Z</time>
      </trkpt>
      <trkpt lat="42.41788" lon="0.06681">
        <ele>749</ele>
        <time>2016-07-24T08:19:21Z</time>
      </trkpt>
      <trkpt lat="42.41787" lon="0.06678">
        <ele>750.1</ele>
        <time>2016-07-24T08:19:23Z</time>
      </trkpt>
      <trkpt lat="42.41786" lon="0.06674">
        <ele>751.2</ele>
        <time>2016-07-24T08:19:25Z</time>
      </trkpt>
      <trkpt lat="42.41784" lon="0.06671">
        <ele>752.1</ele>
        <time>2016-07-24T08:19:27Z</time>
      </trkpt>
      <trkpt lat="42.41781" lon="0.06669">
        <ele>752.7</ele>
        <time>2016-07-24T08:19:29Z</time>
      </trkpt>
      <trkpt lat="42.41777" lon="0.06668">
        <ele>753.2</ele>
        <time>2016-07-24T08:19:32Z</time>
      </trkpt>
      <trkpt lat="42.41775" lon="0.06666">
        <ele>753.8</ele>
        <time>2016-07-24T08:19:34Z</time>
      </trkpt>
      <trkpt lat="42.41772" lon="0.06664">
        <ele>754.4</ele>
        <time>2016-07-24T08:19:36Z</time>
      </trkpt>
      <trkpt lat="42.41769" lon="0.06662">
        <ele>754.8</ele>
        <time>2016-07-24T08:19:38Z</time>
      </trkpt>
      <trkpt lat="42.41766" lon="0.0666">
        <ele>755.5</ele>
        <time>2016-07-24T08:19:40Z</time>
      </trkpt>
      <trkpt lat="42.41764" lon="0.06657">
        <ele>756.2</ele>
        <time>2016-07-24T08:19:42Z</time>
      </trkpt>
      <trkpt lat="42.41762" lon="0.06654">
        <ele>756.9</ele>
        <time>2016-07-24T08:19:44Z</time>
      </trkpt>
      <trkpt lat="42.41759" lon="0.06651">
        <ele>757.6</ele>
        <time>2016-07-24T08:19:46Z</time>
      </trkpt>
      <trkpt lat="42.41757" lon="0.06648">
        <ele>758.2</ele>
        <time>2016-07-24T08:19:48Z</time>
      </trkpt>
      <trkpt lat="42.41754" lon="0.06644">
        <ele>759.1</ele>
        <time>2016-07-24T08:19:51Z</time>
      </trkpt>
      <trkpt lat="42.41751" lon="0.06641">
        <ele>759.6</ele>
        <time>2016-07-24T08:19:53Z</time>
      </trkpt>
      <trkpt lat="42.41748" lon="0.06645">
        <ele>758.8</ele>
        <time>2016-07-24T08:19:56Z</time>
      </trkpt>
      <trkpt lat="42.41746" lon="0.06648">
        <ele>758.3</ele>
        <time>2016-07-24T08:19:58Z</time>
      </trkpt>
      <trkpt lat="42.41744" lon="0.06649">
        <ele>757.9</ele>
        <time>2016-07-24T08:20:00Z</time>
      </trkpt>
      <trkpt lat="42.41741" lon="0.06651">
        <ele>757.6</ele>
        <time>2016-07-24T08:20:02Z</time>
      </trkpt>
      <trkpt lat="42.41738" lon="0.06652">
        <ele>757.4</ele>
        <time>2016-07-24T08:20:04Z</time>
      </trkpt>
      <trkpt lat="42.41735" lon="0.06653">
        <ele>757.2</ele>
        <time>2016-07-24T08:20:06Z</time>
      </trkpt>
      <trkpt lat="42.41731" lon="0.06654">
        <ele>757.1</ele>
        <time>2016-07-24T08:20:09Z</time>
      </trkpt>
      <trkpt lat="42.41727" lon="0.06654">
        <ele>757.1</ele>
        <time>2016-07-24T08:20:11Z</time>
      </trkpt>
      <trkpt lat="42.41724" lon="0.06653">
        <ele>757.3</ele>
        <time>2016-07-24T08:20:13Z</time>
      </trkpt>
      <trkpt lat="42.41721" lon="0.06653">
        <ele>757.3</ele>
        <time>2016-07-24T08:20:15Z</time>
      </trkpt>
      <trkpt lat="42.41717" lon="0.06653">
        <ele>757.3</ele>
        <time>2016-07-24T08:20:17Z</time>
      </trkpt>
      <trkpt lat="42.41712" lon="0.06652">
        <ele>757.4</ele>
        <time>2016-07-24T08:20:19Z</time>
      </trkpt>
      <trkpt lat="42.41708" lon="0.06651">
        <ele>757.6</ele>
        <time>2016-07-24T08:20:21Z</time>
      </trkpt>
      <trkpt lat="42.41704" lon="0.06651">
        <ele>757</ele>
        <time>2016-07-24T08:20:23Z</time>
      </trkpt>
      <trkpt lat="42.417" lon="0.06652">
        <ele>756.3</ele>
        <time>2016-07-24T08:20:25Z</time>
      </trkpt>
      <trkpt lat="42.41696" lon="0.06654">
        <ele>755.4</ele>
        <time>2016-07-24T08:20:27Z</time>
      </trkpt>
      <trkpt lat="42.41693" lon="0.06653">
        <ele>755.1</ele>
        <time>2016-07-24T08:20:30Z</time>
      </trkpt>
      <trkpt lat="42.4169" lon="0.06651">
        <ele>755</ele>
        <time>2016-07-24T08:20:33Z</time>
      </trkpt>
      <trkpt lat="42.41686" lon="0.06651">
        <ele>754.4</ele>
        <time>2016-07-24T08:20:36Z</time>
      </trkpt>
      <trkpt lat="42.41682" lon="0.06651">
        <ele>754</ele>
        <time>2016-07-24T08:20:39Z</time>
      </trkpt>
      <trkpt lat="42.41679" lon="0.06652">
        <ele>753.4</ele>
        <time>2016-07-24T08:20:41Z</time>
      </trkpt>
      <trkpt lat="42.41676" lon="0.06652">
        <ele>753</ele>
        <time>2016-07-24T08:20:43Z</time>
      </trkpt>
      <trkpt lat="42.41674" lon="0.0665">
        <ele>753</ele>
        <time>2016-07-24T08:20:45Z</time>
      </trkpt>
      <trkpt lat="42.41672" lon="0.06648">
        <ele>753.1</ele>
        <time>2016-07-24T08:20:47Z</time>
      </trkpt>
      <trkpt lat="42.41668" lon="0.06646">
        <ele>753</ele>
        <time>2016-07-24T08:20:49Z</time>
      </trkpt>
      <trkpt lat="42.41664" lon="0.06644">
        <ele>752.8</ele>
        <time>2016-07-24T08:20:51Z</time>
      </trkpt>
      <trkpt lat="42.4166" lon="0.0664">
        <ele>752.9</ele>
        <time>2016-07-24T08:20:53Z</time>
      </trkpt>
      <trkpt lat="42.41658" lon="0.06635">
        <ele>753.6</ele>
        <time>2016-07-24T08:20:55Z</time>
      </trkpt>
      <trkpt lat="42.41656" lon="0.06631">
        <ele>754.1</ele>
        <time>2016-07-24T08:20:57Z</time>
      </trkpt>
      <trkpt lat="42.41653" lon="0.06628">
        <ele>754.5</ele>
        <time>2016-07-24T08:21:00Z</time>
      </trkpt>
      <trkpt lat="42.41651" lon="0.06624">
        <ele>755</ele>
        <time>2016-07-24T08:21:03Z</time>
      </trkpt>
      <trkpt lat="42.41648" lon="0.06621">
        <ele>755.5</ele>
        <time>2016-07-24T08:21:05Z</time>
      </trkpt>
      <trkpt lat="42.41647" lon="0.06618">
        <ele>756.3</ele>
        <time>2016-07-24T08:21:07Z</time>
      </trkpt>
      <trkpt lat="42.41647" lon="0.06614">
        <ele>757.3</ele>
        <time>2016-07-24T08:21:09Z</time>
      </trkpt>
      <trkpt lat="42.41646" lon="0.06611">
        <ele>758.1</ele>
        <time>2016-07-24T08:21:11Z</time>
      </trkpt>
      <trkpt lat="42.41644" lon="0.06608">
        <ele>758.6</ele>
        <time>2016-07-24T08:21:13Z</time>
      </trkpt>
      <trkpt lat="42.41642" lon="0.06604">
        <ele>759.4</ele>
        <time>2016-07-24T08:21:15Z</time>
      </trkpt>
      <trkpt lat="42.4164" lon="0.066">
        <ele>760.3</ele>
        <time>2016-07-24T08:21:18Z</time>
      </trkpt>
      <trkpt lat="42.41639" lon="0.06596">
        <ele>761</ele>
        <time>2016-07-24T08:21:20Z</time>
      </trkpt>
      <trkpt lat="42.41637" lon="0.06593">
        <ele>761.7</ele>
        <time>2016-07-24T08:21:26Z</time>
      </trkpt>
      <trkpt lat="42.41638" lon="0.06589">
        <ele>762.8</ele>
        <time>2016-07-24T08:21:31Z</time>
      </trkpt>
      <trkpt lat="42.41637" lon="0.06585">
        <ele>763.9</ele>
        <time>2016-07-24T08:21:36Z</time>
      </trkpt>
      <trkpt lat="42.41635" lon="0.06582">
        <ele>764.2</ele>
        <time>2016-07-24T08:21:39Z</time>
      </trkpt>
      <trkpt lat="42.41632" lon="0.06579">
        <ele>764.6</ele>
        <time>2016-07-24T08:21:43Z</time>
      </trkpt>
      <trkpt lat="42.4163" lon="0.06576">
        <ele>765</ele>
        <time>2016-07-24T08:21:47Z</time>
      </trkpt>
      <trkpt lat="42.41628" lon="0.06573">
        <ele>765.6</ele>
        <time>2016-07-24T08:21:51Z</time>
      </trkpt>
      <trkpt lat="42.41627" lon="0.06569">
        <ele>766.3</ele>
        <time>2016-07-24T08:21:56Z</time>
      </trkpt>
      <trkpt lat="42.41626" lon="0.06566">
        <ele>767.1</ele>
        <time>2016-07-24T08:22:03Z</time>
      </trkpt>
      <trkpt lat="42.41626" lon="0.06562">
        <ele>768.1</ele>
        <time>2016-07-24T08:22:08Z</time>
      </trkpt>
      <trkpt lat="42.41627" lon="0.06558">
        <ele>769.4</ele>
        <time>2016-07-24T08:22:12Z</time>
      </trkpt>
      <trkpt lat="42.41628" lon="0.06554">
        <ele>770.4</ele>
        <time>2016-07-24T08:22:16Z</time>
      </trkpt>
      <trkpt lat="42.41626" lon="0.0655">
        <ele>771</ele>
        <time>2016-07-24T08:22:25Z</time>
      </trkpt>
      <trkpt lat="42.41623" lon="0.06547">
        <ele>771.5</ele>
        <time>2016-07-24T08:22:28Z</time>
      </trkpt>
      <trkpt lat="42.41622" lon="0.06543">
        <ele>772.1</ele>
        <time>2016-07-24T08:22:30Z</time>
      </trkpt>
      <trkpt lat="42.4162" lon="0.0654">
        <ele>772.5</ele>
        <time>2016-07-24T08:22:32Z</time>
      </trkpt>
      <trkpt lat="42.41619" lon="0.06535">
        <ele>772.9</ele>
        <time>2016-07-24T08:22:35Z</time>
      </trkpt>
      <trkpt lat="42.41617" lon="0.0653">
        <ele>773.3</ele>
        <time>2016-07-24T08:22:38Z</time>
      </trkpt>
      <trkpt lat="42.41616" lon="0.06525">
        <ele>773.8</ele>
        <time>2016-07-24T08:22:41Z</time>
      </trkpt>
      <trkpt lat="42.41614" lon="0.06522">
        <ele>773.9</ele>
        <time>2016-07-24T08:22:43Z</time>
      </trkpt>
      <trkpt lat="42.41611" lon="0.06518">
        <ele>774</ele>
        <time>2016-07-24T08:22:45Z</time>
      </trkpt>
      <trkpt lat="42.41609" lon="0.06513">
        <ele>774.4</ele>
        <time>2016-07-24T08:22:47Z</time>
      </trkpt>
      <trkpt lat="42.41607" lon="0.06509">
        <ele>774.8</ele>
        <time>2016-07-24T08:22:49Z</time>
      </trkpt>
      <trkpt lat="42.41605" lon="0.06505">
        <ele>775.2</ele>
        <time>2016-07-24T08:22:51Z</time>
      </trkpt>
      <trkpt lat="42.41604" lon="0.06501">
        <ele>775.6</ele>
        <time>2016-07-24T08:22:54Z</time>
      </trkpt>
      <trkpt lat="42.41602" lon="0.06497">
        <ele>775.8</ele>
        <time>2016-07-24T08:22:56Z</time>
      </trkpt>
      <trkpt lat="42.41599" lon="0.06495">
        <ele>775.9</ele>
        <time>2016-07-24T08:22:58Z</time>
      </trkpt>
      <trkpt lat="42.41596" lon="0.06492">
        <ele>775.9</ele>
        <time>2016-07-24T08:23:00Z</time>
      </trkpt>
      <trkpt lat="42.41594" lon="0.0649">
        <ele>776</ele>
        <time>2016-07-24T08:23:02Z</time>
      </trkpt>
      <trkpt lat="42.41591" lon="0.06488">
        <ele>776</ele>
        <time>2016-07-24T08:23:04Z</time>
      </trkpt>
      <trkpt lat="42.41589" lon="0.06486">
        <ele>776</ele>
        <time>2016-07-24T08:23:06Z</time>
      </trkpt>
      <trkpt lat="42.41586" lon="0.06483">
        <ele>776.2</ele>
        <time>2016-07-24T08:23:08Z</time>
      </trkpt>
      <trkpt lat="42.41583" lon="0.0648">
        <ele>776.3</ele>
        <time>2016-07-24T08:23:10Z</time>
      </trkpt>
      <trkpt lat="42.4158" lon="0.06478">
        <ele>776.3</ele>
        <time>2016-07-24T08:23:12Z</time>
      </trkpt>
      <trkpt lat="42.41577" lon="0.06476">
        <ele>776.3</ele>
        <time>2016-07-24T08:23:14Z</time>
      </trkpt>
      <trkpt lat="42.41573" lon="0.06474">
        <ele>776.3</ele>
        <time>2016-07-24T08:23:17Z</time>
      </trkpt>
      <trkpt lat="42.41571" lon="0.06471">
        <ele>776.6</ele>
        <time>2016-07-24T08:23:19Z</time>
      </trkpt>
      <trkpt lat="42.41569" lon="0.06468">
        <ele>776.9</ele>
        <time>2016-07-24T08:23:22Z</time>
      </trkpt>
      <trkpt lat="42.41566" lon="0.06464">
        <ele>777.3</ele>
        <time>2016-07-24T08:23:25Z</time>
      </trkpt>
      <trkpt lat="42.41564" lon="0.0646">
        <ele>777.9</ele>
        <time>2016-07-24T08:23:28Z</time>
      </trkpt>
      <trkpt lat="42.41561" lon="0.06456">
        <ele>777.9</ele>
        <time>2016-07-24T08:23:31Z</time>
      </trkpt>
      <trkpt lat="42.4156" lon="0.06453">
        <ele>777.9</ele>
        <time>2016-07-24T08:23:33Z</time>
      </trkpt>
      <trkpt lat="42.41558" lon="0.06448">
        <ele>777.9</ele>
        <time>2016-07-24T08:23:36Z</time>
      </trkpt>
      <trkpt lat="42.41557" lon="0.06444">
        <ele>778</ele>
        <time>2016-07-24T08:23:38Z</time>
      </trkpt>
      <trkpt lat="42.41556" lon="0.0644">
        <ele>778.1</ele>
        <time>2016-07-24T08:23:40Z</time>
      </trkpt>
      <trkpt lat="42.41555" lon="0.06437">
        <ele>778.3</ele>
        <time>2016-07-24T08:23:42Z</time>
      </trkpt>
      <trkpt lat="42.41553" lon="0.06433">
        <ele>778.4</ele>
        <time>2016-07-24T08:23:44Z</time>
      </trkpt>
      <trkpt lat="42.41552" lon="0.06429">
        <ele>778.6</ele>
        <time>2016-07-24T08:23:47Z</time>
      </trkpt>
      <trkpt lat="42.41551" lon="0.06425">
        <ele>778.8</ele>
        <time>2016-07-24T08:23:49Z</time>
      </trkpt>
      <trkpt lat="42.4155" lon="0.06422">
        <ele>779</ele>
        <time>2016-07-24T08:23:51Z</time>
      </trkpt>
      <trkpt lat="42.41549" lon="0.06418">
        <ele>779.3</ele>
        <time>2016-07-24T08:23:53Z</time>
      </trkpt>
      <trkpt lat="42.41548" lon="0.06414">
        <ele>779.5</ele>
        <time>2016-07-24T08:23:55Z</time>
      </trkpt>
      <trkpt lat="42.41547" lon="0.0641">
        <ele>779.9</ele>
        <time>2016-07-24T08:23:57Z</time>
      </trkpt>
      <trkpt lat="42.41545" lon="0.06406">
        <ele>780.2</ele>
        <time>2016-07-24T08:23:59Z</time>
      </trkpt>
      <trkpt lat="42.41544" lon="0.06402">
        <ele>780.6</ele>
        <time>2016-07-24T08:24:01Z</time>
      </trkpt>
      <trkpt lat="42.41542" lon="0.06398">
        <ele>781</ele>
        <time>2016-07-24T08:24:03Z</time>
      </trkpt>
      <trkpt lat="42.4154" lon="0.06395">
        <ele>781.5</ele>
        <time>2016-07-24T08:24:05Z</time>
      </trkpt>
      <trkpt lat="42.41538" lon="0.06392">
        <ele>782</ele>
        <time>2016-07-24T08:24:07Z</time>
      </trkpt>
      <trkpt lat="42.41536" lon="0.06388">
        <ele>782.4</ele>
        <time>2016-07-24T08:24:09Z</time>
      </trkpt>
      <trkpt lat="42.41535" lon="0.06384">
        <ele>782.9</ele>
        <time>2016-07-24T08:24:11Z</time>
      </trkpt>
      <trkpt lat="42.41533" lon="0.0638">
        <ele>783.5</ele>
        <time>2016-07-24T08:24:13Z</time>
      </trkpt>
      <trkpt lat="42.4153" lon="0.06377">
        <ele>784.2</ele>
        <time>2016-07-24T08:24:15Z</time>
      </trkpt>
      <trkpt lat="42.41528" lon="0.06374">
        <ele>784.4</ele>
        <time>2016-07-24T08:24:17Z</time>
      </trkpt>
      <trkpt lat="42.41525" lon="0.06368">
        <ele>784</ele>
        <time>2016-07-24T08:25:40Z</time>
      </trkpt>
      <trkpt lat="42.41523" lon="0.06365">
        <ele>784.1</ele>
        <time>2016-07-24T08:25:43Z</time>
      </trkpt>
      <trkpt lat="42.4152" lon="0.06364">
        <ele>784.3</ele>
        <time>2016-07-24T08:25:45Z</time>
      </trkpt>
      <trkpt lat="42.41518" lon="0.06361">
        <ele>784.2</ele>
        <time>2016-07-24T08:25:47Z</time>
      </trkpt>
      <trkpt lat="42.41516" lon="0.06358">
        <ele>784.2</ele>
        <time>2016-07-24T08:25:49Z</time>
      </trkpt>
      <trkpt lat="42.41512" lon="0.06356">
        <ele>784.6</ele>
        <time>2016-07-24T08:25:51Z</time>
      </trkpt>
      <trkpt lat="42.41509" lon="0.06354">
        <ele>785.1</ele>
        <time>2016-07-24T08:25:53Z</time>
      </trkpt>
      <trkpt lat="42.41506" lon="0.06352">
        <ele>785.4</ele>
        <time>2016-07-24T08:25:55Z</time>
      </trkpt>
      <trkpt lat="42.41502" lon="0.06349">
        <ele>785.9</ele>
        <time>2016-07-24T08:25:57Z</time>
      </trkpt>
      <trkpt lat="42.41499" lon="0.06347">
        <ele>786.3</ele>
        <time>2016-07-24T08:25:59Z</time>
      </trkpt>
      <trkpt lat="42.41495" lon="0.06346">
        <ele>787.1</ele>
        <time>2016-07-24T08:26:01Z</time>
      </trkpt>
      <trkpt lat="42.4149" lon="0.06345">
        <ele>788</ele>
        <time>2016-07-24T08:26:03Z</time>
      </trkpt>
      <trkpt lat="42.41486" lon="0.06344">
        <ele>788.7</ele>
        <time>2016-07-24T08:26:05Z</time>
      </trkpt>
      <trkpt lat="42.41483" lon="0.06342">
        <ele>789.5</ele>
        <time>2016-07-24T08:26:07Z</time>
      </trkpt>
      <trkpt lat="42.41479" lon="0.0634">
        <ele>790.3</ele>
        <time>2016-07-24T08:26:09Z</time>
      </trkpt>
      <trkpt lat="42.41475" lon="0.06338">
        <ele>791.1</ele>
        <time>2016-07-24T08:26:11Z</time>
      </trkpt>
      <trkpt lat="42.41471" lon="0.06335">
        <ele>792</ele>
        <time>2016-07-24T08:26:13Z</time>
      </trkpt>
      <trkpt lat="42.41467" lon="0.06333">
        <ele>792.9</ele>
        <time>2016-07-24T08:26:15Z</time>
      </trkpt>
      <trkpt lat="42.41464" lon="0.06331">
        <ele>793.8</ele>
        <time>2016-07-24T08:26:17Z</time>
      </trkpt>
      <trkpt lat="42.4146" lon="0.06329">
        <ele>794.8</ele>
        <time>2016-07-24T08:26:19Z</time>
      </trkpt>
      <trkpt lat="42.41456" lon="0.06329">
        <ele>795.3</ele>
        <time>2016-07-24T08:26:21Z</time>
      </trkpt>
      <trkpt lat="42.41453" lon="0.0633">
        <ele>795.3</ele>
        <time>2016-07-24T08:26:23Z</time>
      </trkpt>
      <trkpt lat="42.41449" lon="0.06331">
        <ele>795.3</ele>
        <time>2016-07-24T08:26:26Z</time>
      </trkpt>
      <trkpt lat="42.41445" lon="0.0633">
        <ele>795.3</ele>
        <time>2016-07-24T08:26:29Z</time>
      </trkpt>
      <trkpt lat="42.41442" lon="0.0633">
        <ele>795.4</ele>
        <time>2016-07-24T08:26:31Z</time>
      </trkpt>
      <trkpt lat="42.41439" lon="0.06329">
        <ele>795.5</ele>
        <time>2016-07-24T08:26:33Z</time>
      </trkpt>
      <trkpt lat="42.41436" lon="0.06328">
        <ele>795.6</ele>
        <time>2016-07-24T08:26:35Z</time>
      </trkpt>
      <trkpt lat="42.41432" lon="0.06327">
        <ele>795.8</ele>
        <time>2016-07-24T08:26:37Z</time>
      </trkpt>
      <trkpt lat="42.41429" lon="0.06326">
        <ele>796</ele>
        <time>2016-07-24T08:26:38Z</time>
      </trkpt>
      <trkpt lat="42.41426" lon="0.06325">
        <ele>796.1</ele>
        <time>2016-07-24T08:26:39Z</time>
      </trkpt>
      <trkpt lat="42.41423" lon="0.06323">
        <ele>796.3</ele>
        <time>2016-07-24T08:26:40Z</time>
      </trkpt>
      <trkpt lat="42.4142" lon="0.06321">
        <ele>796.5</ele>
        <time>2016-07-24T08:26:41Z</time>
      </trkpt>
      <trkpt lat="42.41418" lon="0.0632">
        <ele>796.8</ele>
        <time>2016-07-24T08:26:42Z</time>
      </trkpt>
      <trkpt lat="42.41415" lon="0.06318">
        <ele>797</ele>
        <time>2016-07-24T08:26:43Z</time>
      </trkpt>
      <trkpt lat="42.41412" lon="0.06317">
        <ele>797.3</ele>
        <time>2016-07-24T08:26:44Z</time>
      </trkpt>
      <trkpt lat="42.41409" lon="0.06316">
        <ele>797.4</ele>
        <time>2016-07-24T08:26:45Z</time>
      </trkpt>
      <trkpt lat="42.41406" lon="0.06316">
        <ele>797.6</ele>
        <time>2016-07-24T08:26:46Z</time>
      </trkpt>
      <trkpt lat="42.41402" lon="0.06315">
        <ele>797.7</ele>
        <time>2016-07-24T08:26:47Z</time>
      </trkpt>
      <trkpt lat="42.41398" lon="0.06315">
        <ele>797.9</ele>
        <time>2016-07-24T08:26:48Z</time>
      </trkpt>
      <trkpt lat="42.41395" lon="0.06314">
        <ele>798.2</ele>
        <time>2016-07-24T08:26:49Z</time>
      </trkpt>
      <trkpt lat="42.41391" lon="0.06313">
        <ele>798.4</ele>
        <time>2016-07-24T08:26:50Z</time>
      </trkpt>
      <trkpt lat="42.41388" lon="0.06312">
        <ele>798.7</ele>
        <time>2016-07-24T08:26:51Z</time>
      </trkpt>
      <trkpt lat="42.41385" lon="0.0631">
        <ele>799</ele>
        <time>2016-07-24T08:26:52Z</time>
      </trkpt>
      <trkpt lat="42.41382" lon="0.06308">
        <ele>799.4</ele>
        <time>2016-07-24T08:26:53Z</time>
      </trkpt>
      <trkpt lat="42.41379" lon="0.06305">
        <ele>800</ele>
        <time>2016-07-24T08:26:54Z</time>
      </trkpt>
      <trkpt lat="42.41377" lon="0.06301">
        <ele>800.5</ele>
        <time>2016-07-24T08:26:55Z</time>
      </trkpt>
      <trkpt lat="42.41375" lon="0.06298">
        <ele>801.1</ele>
        <time>2016-07-24T08:26:56Z</time>
      </trkpt>
      <trkpt lat="42.41373" lon="0.06295">
        <ele>801.7</ele>
        <time>2016-07-24T08:26:57Z</time>
      </trkpt>
      <trkpt lat="42.41371" lon="0.06292">
        <ele>802.3</ele>
        <time>2016-07-24T08:26:58Z</time>
      </trkpt>
      <trkpt lat="42.41369" lon="0.06289">
        <ele>801.9</ele>
        <time>2016-07-24T08:26:59Z</time>
      </trkpt>
      <trkpt lat="42.41366" lon="0.06283">
        <ele>801.1</ele>
        <time>2016-07-24T08:27:01Z</time>
      </trkpt>
      <trkpt lat="42.41362" lon="0.06278">
        <ele>800.5</ele>
        <time>2016-07-24T08:27:03Z</time>
      </trkpt>
      <trkpt lat="42.4136" lon="0.06276">
        <ele>800.2</ele>
        <time>2016-07-24T08:27:04Z</time>
      </trkpt>
      <trkpt lat="42.41357" lon="0.06275">
        <ele>800.1</ele>
        <time>2016-07-24T08:27:05Z</time>
      </trkpt>
      <trkpt lat="42.41355" lon="0.06273">
        <ele>799.9</ele>
        <time>2016-07-24T08:27:06Z</time>
      </trkpt>
      <trkpt lat="42.41352" lon="0.06271">
        <ele>799.7</ele>
        <time>2016-07-24T08:27:07Z</time>
      </trkpt>
      <trkpt lat="42.4135" lon="0.06269">
        <ele>799.5</ele>
        <time>2016-07-24T08:27:08Z</time>
      </trkpt>
      <trkpt lat="42.41347" lon="0.06267">
        <ele>799.3</ele>
        <time>2016-07-24T08:27:09Z</time>
      </trkpt>
      <trkpt lat="42.41344" lon="0.06266">
        <ele>799.3</ele>
        <time>2016-07-24T08:27:10Z</time>
      </trkpt>
      <trkpt lat="42.41341" lon="0.06265">
        <ele>799.4</ele>
        <time>2016-07-24T08:27:11Z</time>
      </trkpt>
      <trkpt lat="42.41336" lon="0.06265">
        <ele>799.7</ele>
        <time>2016-07-24T08:27:13Z</time>
      </trkpt>
      <trkpt lat="42.41332" lon="0.06266">
        <ele>800.2</ele>
        <time>2016-07-24T08:27:15Z</time>
      </trkpt>
      <trkpt lat="42.41329" lon="0.06264">
        <ele>800</ele>
        <time>2016-07-24T08:27:17Z</time>
      </trkpt>
      <trkpt lat="42.41326" lon="0.06259">
        <ele>799.2</ele>
        <time>2016-07-24T08:27:19Z</time>
      </trkpt>
      <trkpt lat="42.41324" lon="0.06256">
        <ele>798.6</ele>
        <time>2016-07-24T08:27:21Z</time>
      </trkpt>
      <trkpt lat="42.41322" lon="0.06253">
        <ele>798.1</ele>
        <time>2016-07-24T08:27:26Z</time>
      </trkpt>
      <trkpt lat="42.4132" lon="0.0625">
        <ele>797.7</ele>
        <time>2016-07-24T08:27:31Z</time>
      </trkpt>
      <trkpt lat="42.41318" lon="0.06248">
        <ele>797.3</ele>
        <time>2016-07-24T08:27:35Z</time>
      </trkpt>
      <trkpt lat="42.41315" lon="0.06243">
        <ele>796.4</ele>
        <time>2016-07-24T08:27:40Z</time>
      </trkpt>
      <trkpt lat="42.41313" lon="0.0624">
        <ele>795.8</ele>
        <time>2016-07-24T08:27:41Z</time>
      </trkpt>
      <trkpt lat="42.4131" lon="0.06235">
        <ele>795</ele>
        <time>2016-07-24T08:27:43Z</time>
      </trkpt>
      <trkpt lat="42.41307" lon="0.06231">
        <ele>794.3</ele>
        <time>2016-07-24T08:27:45Z</time>
      </trkpt>
      <trkpt lat="42.41304" lon="0.06228">
        <ele>793.8</ele>
        <time>2016-07-24T08:27:47Z</time>
      </trkpt>
      <trkpt lat="42.41301" lon="0.06226">
        <ele>793.6</ele>
        <time>2016-07-24T08:27:49Z</time>
      </trkpt>
      <trkpt lat="42.41298" lon="0.06224">
        <ele>793.2</ele>
        <time>2016-07-24T08:27:52Z</time>
      </trkpt>
      <trkpt lat="42.41294" lon="0.06221">
        <ele>792.8</ele>
        <time>2016-07-24T08:27:54Z</time>
      </trkpt>
      <trkpt lat="42.41292" lon="0.06219">
        <ele>792.5</ele>
        <time>2016-07-24T08:28:00Z</time>
      </trkpt>
      <trkpt lat="42.41289" lon="0.06217">
        <ele>792.6</ele>
        <time>2016-07-24T08:28:04Z</time>
      </trkpt>
      <trkpt lat="42.41286" lon="0.06215">
        <ele>792.8</ele>
        <time>2016-07-24T08:28:11Z</time>
      </trkpt>
      <trkpt lat="42.41283" lon="0.06213">
        <ele>793</ele>
        <time>2016-07-24T08:28:13Z</time>
      </trkpt>
      <trkpt lat="42.4128" lon="0.06212">
        <ele>793.3</ele>
        <time>2016-07-24T08:28:15Z</time>
      </trkpt>
      <trkpt lat="42.41276" lon="0.06213">
        <ele>794.5</ele>
        <time>2016-07-24T08:28:17Z</time>
      </trkpt>
      <trkpt lat="42.41273" lon="0.06218">
        <ele>796.4</ele>
        <time>2016-07-24T08:28:19Z</time>
      </trkpt>
      <trkpt lat="42.41269" lon="0.06223">
        <ele>798.1</ele>
        <time>2016-07-24T08:28:21Z</time>
      </trkpt>
      <trkpt lat="42.41267" lon="0.06224">
        <ele>798.9</ele>
        <time>2016-07-24T08:28:22Z</time>
      </trkpt>
      <trkpt lat="42.41264" lon="0.06224">
        <ele>799.6</ele>
        <time>2016-07-24T08:28:23Z</time>
      </trkpt>
      <trkpt lat="42.4126" lon="0.06224">
        <ele>800.3</ele>
        <time>2016-07-24T08:28:24Z</time>
      </trkpt>
      <trkpt lat="42.41257" lon="0.06223">
        <ele>800.8</ele>
        <time>2016-07-24T08:28:25Z</time>
      </trkpt>
      <trkpt lat="42.41254" lon="0.06222">
        <ele>801.3</ele>
        <time>2016-07-24T08:28:26Z</time>
      </trkpt>
      <trkpt lat="42.41251" lon="0.06221">
        <ele>801.7</ele>
        <time>2016-07-24T08:28:27Z</time>
      </trkpt>
      <trkpt lat="42.41247" lon="0.06219">
        <ele>802.2</ele>
        <time>2016-07-24T08:28:28Z</time>
      </trkpt>
      <trkpt lat="42.41244" lon="0.06218">
        <ele>802.6</ele>
        <time>2016-07-24T08:28:29Z</time>
      </trkpt>
      <trkpt lat="42.4124" lon="0.06216">
        <ele>803.1</ele>
        <time>2016-07-24T08:28:31Z</time>
      </trkpt>
      <trkpt lat="42.41238" lon="0.06216">
        <ele>803.7</ele>
        <time>2016-07-24T08:28:32Z</time>
      </trkpt>
      <trkpt lat="42.41234" lon="0.06216">
        <ele>804.6</ele>
        <time>2016-07-24T08:28:33Z</time>
      </trkpt>
      <trkpt lat="42.4123" lon="0.06216">
        <ele>805.5</ele>
        <time>2016-07-24T08:28:34Z</time>
      </trkpt>
      <trkpt lat="42.41226" lon="0.06216">
        <ele>806.3</ele>
        <time>2016-07-24T08:28:35Z</time>
      </trkpt>
      <trkpt lat="42.41222" lon="0.06215">
        <ele>807.2</ele>
        <time>2016-07-24T08:28:36Z</time>
      </trkpt>
      <trkpt lat="42.41218" lon="0.06215">
        <ele>808</ele>
        <time>2016-07-24T08:28:37Z</time>
      </trkpt>
      <trkpt lat="42.41214" lon="0.06215">
        <ele>808.7</ele>
        <time>2016-07-24T08:28:38Z</time>
      </trkpt>
      <trkpt lat="42.41211" lon="0.06214">
        <ele>809.3</ele>
        <time>2016-07-24T08:28:39Z</time>
      </trkpt>
      <trkpt lat="42.41207" lon="0.06215">
        <ele>810.3</ele>
        <time>2016-07-24T08:28:41Z</time>
      </trkpt>
      <trkpt lat="42.41203" lon="0.06217">
        <ele>811.4</ele>
        <time>2016-07-24T08:28:43Z</time>
      </trkpt>
      <trkpt lat="42.412" lon="0.06217">
        <ele>812.2</ele>
        <time>2016-07-24T08:28:45Z</time>
      </trkpt>
      <trkpt lat="42.41196" lon="0.06216">
        <ele>812.6</ele>
        <time>2016-07-24T08:28:47Z</time>
      </trkpt>
      <trkpt lat="42.41192" lon="0.06214">
        <ele>813</ele>
        <time>2016-07-24T08:28:49Z</time>
      </trkpt>
      <trkpt lat="42.41189" lon="0.06214">
        <ele>813.7</ele>
        <time>2016-07-24T08:28:51Z</time>
      </trkpt>
      <trkpt lat="42.41187" lon="0.06214">
        <ele>814.2</ele>
        <time>2016-07-24T08:28:53Z</time>
      </trkpt>
      <trkpt lat="42.41183" lon="0.06212">
        <ele>814.5</ele>
        <time>2016-07-24T08:28:55Z</time>
      </trkpt>
      <trkpt lat="42.41181" lon="0.06207">
        <ele>814.1</ele>
        <time>2016-07-24T08:28:57Z</time>
      </trkpt>
      <trkpt lat="42.41179" lon="0.06202">
        <ele>813.4</ele>
        <time>2016-07-24T08:28:59Z</time>
      </trkpt>
      <trkpt lat="42.41178" lon="0.06194">
        <ele>812</ele>
        <time>2016-07-24T08:29:01Z</time>
      </trkpt>
      <trkpt lat="42.41177" lon="0.06189">
        <ele>811.2</ele>
        <time>2016-07-24T08:29:02Z</time>
      </trkpt>
      <trkpt lat="42.41175" lon="0.06184">
        <ele>810.6</ele>
        <time>2016-07-24T08:29:03Z</time>
      </trkpt>
      <trkpt lat="42.41174" lon="0.0618">
        <ele>810.1</ele>
        <time>2016-07-24T08:29:04Z</time>
      </trkpt>
      <trkpt lat="42.41172" lon="0.06177">
        <ele>809.7</ele>
        <time>2016-07-24T08:29:05Z</time>
      </trkpt>
      <trkpt lat="42.41169" lon="0.06172">
        <ele>809.1</ele>
        <time>2016-07-24T08:29:07Z</time>
      </trkpt>
      <trkpt lat="42.41168" lon="0.06167">
        <ele>808.4</ele>
        <time>2016-07-24T08:29:09Z</time>
      </trkpt>
      <trkpt lat="42.41166" lon="0.0616">
        <ele>807.2</ele>
        <time>2016-07-24T08:29:11Z</time>
      </trkpt>
      <trkpt lat="42.41166" lon="0.06155">
        <ele>806.3</ele>
        <time>2016-07-24T08:29:12Z</time>
      </trkpt>
      <trkpt lat="42.41165" lon="0.0615">
        <ele>805.3</ele>
        <time>2016-07-24T08:29:13Z</time>
      </trkpt>
      <trkpt lat="42.41165" lon="0.06145">
        <ele>804.4</ele>
        <time>2016-07-24T08:29:14Z</time>
      </trkpt>
      <trkpt lat="42.41164" lon="0.0614">
        <ele>803.5</ele>
        <time>2016-07-24T08:29:15Z</time>
      </trkpt>
      <trkpt lat="42.41163" lon="0.06135">
        <ele>802.5</ele>
        <time>2016-07-24T08:29:16Z</time>
      </trkpt>
      <trkpt lat="42.41161" lon="0.06129">
        <ele>801.6</ele>
        <time>2016-07-24T08:29:17Z</time>
      </trkpt>
      <trkpt lat="42.41159" lon="0.06124">
        <ele>800.8</ele>
        <time>2016-07-24T08:29:18Z</time>
      </trkpt>
      <trkpt lat="42.41157" lon="0.0612">
        <ele>800.2</ele>
        <time>2016-07-24T08:29:19Z</time>
      </trkpt>
      <trkpt lat="42.41156" lon="0.06117">
        <ele>799.7</ele>
        <time>2016-07-24T08:29:20Z</time>
      </trkpt>
      <trkpt lat="42.41155" lon="0.06111">
        <ele>798.9</ele>
        <time>2016-07-24T08:29:22Z</time>
      </trkpt>
      <trkpt lat="42.41154" lon="0.06105">
        <ele>797.8</ele>
        <time>2016-07-24T08:29:24Z</time>
      </trkpt>
      <trkpt lat="42.41152" lon="0.06103">
        <ele>797.4</ele>
        <time>2016-07-24T08:29:25Z</time>
      </trkpt>
      <trkpt lat="42.41149" lon="0.06101">
        <ele>797.3</ele>
        <time>2016-07-24T08:29:26Z</time>
      </trkpt>
      <trkpt lat="42.41146" lon="0.06099">
        <ele>797.3</ele>
        <time>2016-07-24T08:29:27Z</time>
      </trkpt>
      <trkpt lat="42.41144" lon="0.06098">
        <ele>797.2</ele>
        <time>2016-07-24T08:29:28Z</time>
      </trkpt>
      <trkpt lat="42.41141" lon="0.06095">
        <ele>796.8</ele>
        <time>2016-07-24T08:29:29Z</time>
      </trkpt>
      <trkpt lat="42.41139" lon="0.06092">
        <ele>796.5</ele>
        <time>2016-07-24T08:29:30Z</time>
      </trkpt>
      <trkpt lat="42.41136" lon="0.06091">
        <ele>796.4</ele>
        <time>2016-07-24T08:29:31Z</time>
      </trkpt>
      <trkpt lat="42.41132" lon="0.06091">
        <ele>796.6</ele>
        <time>2016-07-24T08:29:33Z</time>
      </trkpt>
      <trkpt lat="42.41128" lon="0.06091">
        <ele>797.1</ele>
        <time>2016-07-24T08:29:35Z</time>
      </trkpt>
      <trkpt lat="42.41123" lon="0.06089">
        <ele>796.8</ele>
        <time>2016-07-24T08:29:37Z</time>
      </trkpt>
      <trkpt lat="42.4112" lon="0.06086">
        <ele>796.3</ele>
        <time>2016-07-24T08:29:38Z</time>
      </trkpt>
      <trkpt lat="42.41116" lon="0.06083">
        <ele>795.8</ele>
        <time>2016-07-24T08:29:39Z</time>
      </trkpt>
      <trkpt lat="42.41111" lon="0.06081">
        <ele>795.4</ele>
        <time>2016-07-24T08:29:40Z</time>
      </trkpt>
      <trkpt lat="42.41106" lon="0.06079">
        <ele>795.3</ele>
        <time>2016-07-24T08:29:41Z</time>
      </trkpt>
      <trkpt lat="42.41101" lon="0.06078">
        <ele>795.2</ele>
        <time>2016-07-24T08:29:42Z</time>
      </trkpt>
      <trkpt lat="42.41097" lon="0.06078">
        <ele>795.3</ele>
        <time>2016-07-24T08:29:43Z</time>
      </trkpt>
      <trkpt lat="42.41094" lon="0.06077">
        <ele>795.2</ele>
        <time>2016-07-24T08:29:44Z</time>
      </trkpt>
      <trkpt lat="42.41091" lon="0.06076">
        <ele>795.2</ele>
        <time>2016-07-24T08:29:45Z</time>
      </trkpt>
      <trkpt lat="42.41088" lon="0.06075">
        <ele>795</ele>
        <time>2016-07-24T08:29:46Z</time>
      </trkpt>
      <trkpt lat="42.41084" lon="0.06074">
        <ele>794.9</ele>
        <time>2016-07-24T08:29:47Z</time>
      </trkpt>
      <trkpt lat="42.41081" lon="0.06074">
        <ele>794.9</ele>
        <time>2016-07-24T08:29:48Z</time>
      </trkpt>
      <trkpt lat="42.41077" lon="0.06073">
        <ele>794.9</ele>
        <time>2016-07-24T08:29:49Z</time>
      </trkpt>
      <trkpt lat="42.41074" lon="0.06073">
        <ele>794.8</ele>
        <time>2016-07-24T08:29:50Z</time>
      </trkpt>
      <trkpt lat="42.41071" lon="0.06072">
        <ele>794.6</ele>
        <time>2016-07-24T08:29:51Z</time>
      </trkpt>
      <trkpt lat="42.41067" lon="0.06069">
        <ele>794.2</ele>
        <time>2016-07-24T08:29:53Z</time>
      </trkpt>
      <trkpt lat="42.41064" lon="0.06067">
        <ele>793.7</ele>
        <time>2016-07-24T08:29:55Z</time>
      </trkpt>
      <trkpt lat="42.41062" lon="0.06064">
        <ele>792.7</ele>
        <time>2016-07-24T08:29:57Z</time>
      </trkpt>
      <trkpt lat="42.4106" lon="0.06059">
        <ele>791.5</ele>
        <time>2016-07-24T08:29:59Z</time>
      </trkpt>
      <trkpt lat="42.41058" lon="0.06057">
        <ele>791.1</ele>
        <time>2016-07-24T08:30:07Z</time>
      </trkpt>
      <trkpt lat="42.41055" lon="0.06056">
        <ele>790.9</ele>
        <time>2016-07-24T08:30:16Z</time>
      </trkpt>
      <trkpt lat="42.41052" lon="0.06057">
        <ele>791.1</ele>
        <time>2016-07-24T08:30:22Z</time>
      </trkpt>
      <trkpt lat="42.41049" lon="0.06056">
        <ele>791.1</ele>
        <time>2016-07-24T08:30:28Z</time>
      </trkpt>
      <trkpt lat="42.41045" lon="0.06056">
        <ele>791</ele>
        <time>2016-07-24T08:30:31Z</time>
      </trkpt>
      <trkpt lat="42.41043" lon="0.06056">
        <ele>791.1</ele>
        <time>2016-07-24T08:30:36Z</time>
      </trkpt>
      <trkpt lat="42.41038" lon="0.06057">
        <ele>791.9</ele>
        <time>2016-07-24T08:30:39Z</time>
      </trkpt>
      <trkpt lat="42.41035" lon="0.06058">
        <ele>792.8</ele>
        <time>2016-07-24T08:30:41Z</time>
      </trkpt>
      <trkpt lat="42.41031" lon="0.06058">
        <ele>793.3</ele>
        <time>2016-07-24T08:30:43Z</time>
      </trkpt>
      <trkpt lat="42.41027" lon="0.06057">
        <ele>793.4</ele>
        <time>2016-07-24T08:30:45Z</time>
      </trkpt>
      <trkpt lat="42.41022" lon="0.06053">
        <ele>793.2</ele>
        <time>2016-07-24T08:30:47Z</time>
      </trkpt>
      <trkpt lat="42.41019" lon="0.06052">
        <ele>793.2</ele>
        <time>2016-07-24T08:30:48Z</time>
      </trkpt>
      <trkpt lat="42.41016" lon="0.0605">
        <ele>793.3</ele>
        <time>2016-07-24T08:30:49Z</time>
      </trkpt>
      <trkpt lat="42.41012" lon="0.06048">
        <ele>793.3</ele>
        <time>2016-07-24T08:30:50Z</time>
      </trkpt>
      <trkpt lat="42.41009" lon="0.06047">
        <ele>793.5</ele>
        <time>2016-07-24T08:30:51Z</time>
      </trkpt>
      <trkpt lat="42.41005" lon="0.06047">
        <ele>794</ele>
        <time>2016-07-24T08:30:52Z</time>
      </trkpt>
      <trkpt lat="42.41002" lon="0.06048">
        <ele>794.8</ele>
        <time>2016-07-24T08:30:53Z</time>
      </trkpt>
      <trkpt lat="42.40998" lon="0.06049">
        <ele>795.5</ele>
        <time>2016-07-24T08:30:54Z</time>
      </trkpt>
      <trkpt lat="42.40995" lon="0.06049">
        <ele>796.1</ele>
        <time>2016-07-24T08:30:55Z</time>
      </trkpt>
      <trkpt lat="42.40992" lon="0.06049">
        <ele>796.7</ele>
        <time>2016-07-24T08:30:56Z</time>
      </trkpt>
      <trkpt lat="42.40989" lon="0.0605">
        <ele>797.3</ele>
        <time>2016-07-24T08:30:57Z</time>
      </trkpt>
      <trkpt lat="42.40986" lon="0.06051">
        <ele>797.9</ele>
        <time>2016-07-24T08:30:58Z</time>
      </trkpt>
      <trkpt lat="42.40983" lon="0.06051">
        <ele>798.5</ele>
        <time>2016-07-24T08:30:59Z</time>
      </trkpt>
      <trkpt lat="42.40978" lon="0.06053">
        <ele>799.7</ele>
        <time>2016-07-24T08:31:01Z</time>
      </trkpt>
      <trkpt lat="42.40973" lon="0.06055">
        <ele>800.8</ele>
        <time>2016-07-24T08:31:03Z</time>
      </trkpt>
      <trkpt lat="42.4097" lon="0.06056">
        <ele>801.5</ele>
        <time>2016-07-24T08:31:04Z</time>
      </trkpt>
      <trkpt lat="42.40967" lon="0.06056">
        <ele>802</ele>
        <time>2016-07-24T08:31:05Z</time>
      </trkpt>
      <trkpt lat="42.40963" lon="0.06054">
        <ele>802.2</ele>
        <time>2016-07-24T08:31:07Z</time>
      </trkpt>
      <trkpt lat="42.4096" lon="0.06051">
        <ele>801.9</ele>
        <time>2016-07-24T08:31:08Z</time>
      </trkpt>
      <trkpt lat="42.40958" lon="0.06047">
        <ele>801.1</ele>
        <time>2016-07-24T08:31:10Z</time>
      </trkpt>
      <trkpt lat="42.40955" lon="0.06043">
        <ele>800.3</ele>
        <time>2016-07-24T08:31:12Z</time>
      </trkpt>
      <trkpt lat="42.40953" lon="0.0604">
        <ele>800</ele>
        <time>2016-07-24T08:31:13Z</time>
      </trkpt>
      <trkpt lat="42.40949" lon="0.06036">
        <ele>799.8</ele>
        <time>2016-07-24T08:31:15Z</time>
      </trkpt>
      <trkpt lat="42.40945" lon="0.06034">
        <ele>799.8</ele>
        <time>2016-07-24T08:31:17Z</time>
      </trkpt>
      <trkpt lat="42.4094" lon="0.06032">
        <ele>799.8</ele>
        <time>2016-07-24T08:31:19Z</time>
      </trkpt>
      <trkpt lat="42.40937" lon="0.0603">
        <ele>799.8</ele>
        <time>2016-07-24T08:31:20Z</time>
      </trkpt>
      <trkpt lat="42.40934" lon="0.06028">
        <ele>799.7</ele>
        <time>2016-07-24T08:31:21Z</time>
      </trkpt>
      <trkpt lat="42.40931" lon="0.06027">
        <ele>799.8</ele>
        <time>2016-07-24T08:31:22Z</time>
      </trkpt>
      <trkpt lat="42.40928" lon="0.06028">
        <ele>799.9</ele>
        <time>2016-07-24T08:31:23Z</time>
      </trkpt>
      <trkpt lat="42.40924" lon="0.06027">
        <ele>800</ele>
        <time>2016-07-24T08:31:24Z</time>
      </trkpt>
      <trkpt lat="42.40921" lon="0.06026">
        <ele>800</ele>
        <time>2016-07-24T08:31:25Z</time>
      </trkpt>
      <trkpt lat="42.40918" lon="0.06024">
        <ele>800</ele>
        <time>2016-07-24T08:31:26Z</time>
      </trkpt>
      <trkpt lat="42.40914" lon="0.06022">
        <ele>800</ele>
        <time>2016-07-24T08:31:28Z</time>
      </trkpt>
      <trkpt lat="42.40909" lon="0.06021">
        <ele>800.2</ele>
        <time>2016-07-24T08:31:30Z</time>
      </trkpt>
      <trkpt lat="42.40906" lon="0.06019">
        <ele>800.2</ele>
        <time>2016-07-24T08:31:32Z</time>
      </trkpt>
      <trkpt lat="42.40903" lon="0.06014">
        <ele>800</ele>
        <time>2016-07-24T08:31:34Z</time>
      </trkpt>
      <trkpt lat="42.40901" lon="0.06009">
        <ele>799.9</ele>
        <time>2016-07-24T08:31:36Z</time>
      </trkpt>
      <trkpt lat="42.40897" lon="0.06005">
        <ele>799.8</ele>
        <time>2016-07-24T08:31:38Z</time>
      </trkpt>
      <trkpt lat="42.40894" lon="0.06003">
        <ele>799.8</ele>
        <time>2016-07-24T08:31:39Z</time>
      </trkpt>
      <trkpt lat="42.40891" lon="0.06">
        <ele>799.8</ele>
        <time>2016-07-24T08:31:40Z</time>
      </trkpt>
      <trkpt lat="42.40888" lon="0.05997">
        <ele>799.9</ele>
        <time>2016-07-24T08:31:41Z</time>
      </trkpt>
      <trkpt lat="42.40885" lon="0.05993">
        <ele>799.8</ele>
        <time>2016-07-24T08:31:43Z</time>
      </trkpt>
      <trkpt lat="42.40884" lon="0.0599">
        <ele>799.7</ele>
        <time>2016-07-24T08:31:45Z</time>
      </trkpt>
      <trkpt lat="42.40881" lon="0.05988">
        <ele>799.8</ele>
        <time>2016-07-24T08:31:47Z</time>
      </trkpt>
      <trkpt lat="42.40875" lon="0.05987">
        <ele>800</ele>
        <time>2016-07-24T08:31:50Z</time>
      </trkpt>
      <trkpt lat="42.40872" lon="0.05983">
        <ele>799.7</ele>
        <time>2016-07-24T08:31:52Z</time>
      </trkpt>
      <trkpt lat="42.40869" lon="0.05981">
        <ele>799.5</ele>
        <time>2016-07-24T08:31:53Z</time>
      </trkpt>
      <trkpt lat="42.40864" lon="0.05979">
        <ele>799.1</ele>
        <time>2016-07-24T08:31:55Z</time>
      </trkpt>
      <trkpt lat="42.40861" lon="0.05978">
        <ele>798.9</ele>
        <time>2016-07-24T08:31:56Z</time>
      </trkpt>
      <trkpt lat="42.40858" lon="0.05978">
        <ele>798.7</ele>
        <time>2016-07-24T08:31:57Z</time>
      </trkpt>
      <trkpt lat="42.40853" lon="0.05975">
        <ele>798.2</ele>
        <time>2016-07-24T08:31:59Z</time>
      </trkpt>
      <trkpt lat="42.4085" lon="0.05972">
        <ele>797.9</ele>
        <time>2016-07-24T08:32:00Z</time>
      </trkpt>
      <trkpt lat="42.40847" lon="0.0597">
        <ele>797.6</ele>
        <time>2016-07-24T08:32:01Z</time>
      </trkpt>
      <trkpt lat="42.40843" lon="0.05969">
        <ele>797.3</ele>
        <time>2016-07-24T08:32:03Z</time>
      </trkpt>
      <trkpt lat="42.4084" lon="0.05971">
        <ele>797.2</ele>
        <time>2016-07-24T08:32:09Z</time>
      </trkpt>
      <trkpt lat="42.40837" lon="0.05971">
        <ele>797</ele>
        <time>2016-07-24T08:32:20Z</time>
      </trkpt>
      <trkpt lat="42.40834" lon="0.05968">
        <ele>796.6</ele>
        <time>2016-07-24T08:32:24Z</time>
      </trkpt>
      <trkpt lat="42.40831" lon="0.05966">
        <ele>796.3</ele>
        <time>2016-07-24T08:32:25Z</time>
      </trkpt>
      <trkpt lat="42.40829" lon="0.05964">
        <ele>796</ele>
        <time>2016-07-24T08:32:26Z</time>
      </trkpt>
      <trkpt lat="42.40826" lon="0.05962">
        <ele>795.7</ele>
        <time>2016-07-24T08:32:27Z</time>
      </trkpt>
      <trkpt lat="42.40823" lon="0.0596">
        <ele>795.3</ele>
        <time>2016-07-24T08:32:28Z</time>
      </trkpt>
      <trkpt lat="42.40819" lon="0.05959">
        <ele>795</ele>
        <time>2016-07-24T08:32:29Z</time>
      </trkpt>
      <trkpt lat="42.40815" lon="0.0596">
        <ele>794.8</ele>
        <time>2016-07-24T08:32:30Z</time>
      </trkpt>
      <trkpt lat="42.40811" lon="0.0596">
        <ele>794.6</ele>
        <time>2016-07-24T08:32:31Z</time>
      </trkpt>
      <trkpt lat="42.40808" lon="0.0596">
        <ele>794.3</ele>
        <time>2016-07-24T08:32:32Z</time>
      </trkpt>
      <trkpt lat="42.40805" lon="0.05959">
        <ele>794</ele>
        <time>2016-07-24T08:32:33Z</time>
      </trkpt>
      <trkpt lat="42.40802" lon="0.05956">
        <ele>793.5</ele>
        <time>2016-07-24T08:32:34Z</time>
      </trkpt>
      <trkpt lat="42.408" lon="0.05953">
        <ele>792.9</ele>
        <time>2016-07-24T08:32:35Z</time>
      </trkpt>
      <trkpt lat="42.40797" lon="0.0595">
        <ele>792.4</ele>
        <time>2016-07-24T08:32:36Z</time>
      </trkpt>
      <trkpt lat="42.40794" lon="0.05949">
        <ele>791.9</ele>
        <time>2016-07-24T08:32:37Z</time>
      </trkpt>
      <trkpt lat="42.40791" lon="0.05947">
        <ele>791.6</ele>
        <time>2016-07-24T08:32:38Z</time>
      </trkpt>
      <trkpt lat="42.40786" lon="0.05946">
        <ele>792.3</ele>
        <time>2016-07-24T08:32:40Z</time>
      </trkpt>
      <trkpt lat="42.40784" lon="0.05945">
        <ele>792.6</ele>
        <time>2016-07-24T08:32:41Z</time>
      </trkpt>
      <trkpt lat="42.4078" lon="0.05944">
        <ele>793.2</ele>
        <time>2016-07-24T08:32:42Z</time>
      </trkpt>
      <trkpt lat="42.40776" lon="0.05943">
        <ele>793.7</ele>
        <time>2016-07-24T08:32:43Z</time>
      </trkpt>
      <trkpt lat="42.40772" lon="0.05942">
        <ele>794.3</ele>
        <time>2016-07-24T08:32:44Z</time>
      </trkpt>
      <trkpt lat="42.40769" lon="0.0594">
        <ele>794.6</ele>
        <time>2016-07-24T08:32:45Z</time>
      </trkpt>
      <trkpt lat="42.40765" lon="0.05936">
        <ele>794.7</ele>
        <time>2016-07-24T08:32:47Z</time>
      </trkpt>
      <trkpt lat="42.40763" lon="0.05931">
        <ele>794.6</ele>
        <time>2016-07-24T08:32:49Z</time>
      </trkpt>
      <trkpt lat="42.40761" lon="0.05929">
        <ele>794.6</ele>
        <time>2016-07-24T08:32:50Z</time>
      </trkpt>
      <trkpt lat="42.40759" lon="0.05925">
        <ele>794.6</ele>
        <time>2016-07-24T08:32:51Z</time>
      </trkpt>
      <trkpt lat="42.40757" lon="0.05923">
        <ele>794.6</ele>
        <time>2016-07-24T08:32:52Z</time>
      </trkpt>
      <trkpt lat="42.40755" lon="0.0592">
        <ele>794.7</ele>
        <time>2016-07-24T08:32:53Z</time>
      </trkpt>
      <trkpt lat="42.40753" lon="0.05917">
        <ele>794.8</ele>
        <time>2016-07-24T08:32:54Z</time>
      </trkpt>
      <trkpt lat="42.40751" lon="0.05915">
        <ele>794.9</ele>
        <time>2016-07-24T08:32:55Z</time>
      </trkpt>
      <trkpt lat="42.40748" lon="0.05913">
        <ele>795.2</ele>
        <time>2016-07-24T08:33:00Z</time>
      </trkpt>
      <trkpt lat="42.40746" lon="0.0591">
        <ele>795.4</ele>
        <time>2016-07-24T08:33:03Z</time>
      </trkpt>
      <trkpt lat="42.40743" lon="0.05908">
        <ele>795.6</ele>
        <time>2016-07-24T08:33:10Z</time>
      </trkpt>
      <trkpt lat="42.40742" lon="0.05905">
        <ele>795.4</ele>
        <time>2016-07-24T08:33:15Z</time>
      </trkpt>
      <trkpt lat="42.4074" lon="0.05902">
        <ele>795.5</ele>
        <time>2016-07-24T08:33:22Z</time>
      </trkpt>
      <trkpt lat="42.40737" lon="0.05901">
        <ele>796.1</ele>
        <time>2016-07-24T08:33:27Z</time>
      </trkpt>
      <trkpt lat="42.40734" lon="0.059">
        <ele>796.3</ele>
        <time>2016-07-24T08:33:30Z</time>
      </trkpt>
      <trkpt lat="42.40732" lon="0.05897">
        <ele>796.4</ele>
        <time>2016-07-24T08:33:38Z</time>
      </trkpt>
      <trkpt lat="42.40728" lon="0.05895">
        <ele>797</ele>
        <time>2016-07-24T08:33:41Z</time>
      </trkpt>
      <trkpt lat="42.40726" lon="0.05893">
        <ele>797.3</ele>
        <time>2016-07-24T08:33:43Z</time>
      </trkpt>
      <trkpt lat="42.40723" lon="0.0589">
        <ele>797.5</ele>
        <time>2016-07-24T08:33:45Z</time>
      </trkpt>
      <trkpt lat="42.40721" lon="0.05888">
        <ele>797.7</ele>
        <time>2016-07-24T08:33:47Z</time>
      </trkpt>
      <trkpt lat="42.40718" lon="0.05886">
        <ele>798.2</ele>
        <time>2016-07-24T08:33:49Z</time>
      </trkpt>
      <trkpt lat="42.40714" lon="0.05885">
        <ele>798.8</ele>
        <time>2016-07-24T08:33:51Z</time>
      </trkpt>
      <trkpt lat="42.40711" lon="0.05883">
        <ele>799.3</ele>
        <time>2016-07-24T08:33:53Z</time>
      </trkpt>
      <trkpt lat="42.40708" lon="0.05881">
        <ele>799.7</ele>
        <time>2016-07-24T08:33:55Z</time>
      </trkpt>
      <trkpt lat="42.40704" lon="0.05879">
        <ele>799.8</ele>
        <time>2016-07-24T08:33:57Z</time>
      </trkpt>
      <trkpt lat="42.407" lon="0.05878">
        <ele>800.1</ele>
        <time>2016-07-24T08:33:59Z</time>
      </trkpt>
      <trkpt lat="42.40696" lon="0.05877">
        <ele>800.4</ele>
        <time>2016-07-24T08:34:01Z</time>
      </trkpt>
      <trkpt lat="42.40691" lon="0.05875">
        <ele>800.7</ele>
        <time>2016-07-24T08:34:03Z</time>
      </trkpt>
      <trkpt lat="42.40688" lon="0.05875">
        <ele>801</ele>
        <time>2016-07-24T08:34:04Z</time>
      </trkpt>
      <trkpt lat="42.40685" lon="0.05876">
        <ele>801.4</ele>
        <time>2016-07-24T08:34:05Z</time>
      </trkpt>
      <trkpt lat="42.40681" lon="0.05877">
        <ele>801.8</ele>
        <time>2016-07-24T08:34:06Z</time>
      </trkpt>
      <trkpt lat="42.40678" lon="0.05878">
        <ele>802.2</ele>
        <time>2016-07-24T08:34:07Z</time>
      </trkpt>
      <trkpt lat="42.40675" lon="0.05878">
        <ele>802.6</ele>
        <time>2016-07-24T08:34:08Z</time>
      </trkpt>
      <trkpt lat="42.40672" lon="0.05879">
        <ele>803</ele>
        <time>2016-07-24T08:34:09Z</time>
      </trkpt>
      <trkpt lat="42.40669" lon="0.05879">
        <ele>803.3</ele>
        <time>2016-07-24T08:34:10Z</time>
      </trkpt>
      <trkpt lat="42.40666" lon="0.05879">
        <ele>803.6</ele>
        <time>2016-07-24T08:34:11Z</time>
      </trkpt>
      <trkpt lat="42.40661" lon="0.05878">
        <ele>804</ele>
        <time>2016-07-24T08:34:13Z</time>
      </trkpt>
      <trkpt lat="42.40658" lon="0.05877">
        <ele>804.2</ele>
        <time>2016-07-24T08:34:15Z</time>
      </trkpt>
      <trkpt lat="42.40655" lon="0.05878">
        <ele>804.5</ele>
        <time>2016-07-24T08:34:17Z</time>
      </trkpt>
      <trkpt lat="42.40653" lon="0.05881">
        <ele>805.1</ele>
        <time>2016-07-24T08:34:19Z</time>
      </trkpt>
      <trkpt lat="42.40653" lon="0.05885">
        <ele>805.7</ele>
        <time>2016-07-24T08:34:23Z</time>
      </trkpt>
      <trkpt lat="42.4065" lon="0.05886">
        <ele>806.1</ele>
        <time>2016-07-24T08:34:28Z</time>
      </trkpt>
      <trkpt lat="42.40646" lon="0.05885">
        <ele>806.3</ele>
        <time>2016-07-24T08:34:36Z</time>
      </trkpt>
      <trkpt lat="42.40642" lon="0.05883">
        <ele>806.6</ele>
        <time>2016-07-24T08:34:38Z</time>
      </trkpt>
      <trkpt lat="42.40639" lon="0.05882">
        <ele>806.7</ele>
        <time>2016-07-24T08:34:39Z</time>
      </trkpt>
      <trkpt lat="42.40636" lon="0.0588">
        <ele>806.8</ele>
        <time>2016-07-24T08:34:40Z</time>
      </trkpt>
      <trkpt lat="42.40632" lon="0.05878">
        <ele>806.7</ele>
        <time>2016-07-24T08:34:41Z</time>
      </trkpt>
      <trkpt lat="42.4063" lon="0.05875">
        <ele>806.5</ele>
        <time>2016-07-24T08:34:42Z</time>
      </trkpt>
      <trkpt lat="42.40628" lon="0.0587">
        <ele>806.9</ele>
        <time>2016-07-24T08:34:44Z</time>
      </trkpt>
      <trkpt lat="42.40627" lon="0.05865">
        <ele>807.3</ele>
        <time>2016-07-24T08:34:47Z</time>
      </trkpt>
      <trkpt lat="42.40626" lon="0.05862">
        <ele>807.6</ele>
        <time>2016-07-24T08:34:52Z</time>
      </trkpt>
      <trkpt lat="42.40624" lon="0.05858">
        <ele>807.8</ele>
        <time>2016-07-24T08:34:56Z</time>
      </trkpt>
      <trkpt lat="42.40622" lon="0.05854">
        <ele>808</ele>
        <time>2016-07-24T08:34:58Z</time>
      </trkpt>
      <trkpt lat="42.40619" lon="0.05851">
        <ele>808.2</ele>
        <time>2016-07-24T08:35:00Z</time>
      </trkpt>
      <trkpt lat="42.40616" lon="0.05847">
        <ele>808.3</ele>
        <time>2016-07-24T08:35:02Z</time>
      </trkpt>
      <trkpt lat="42.40614" lon="0.05843">
        <ele>808.4</ele>
        <time>2016-07-24T08:35:04Z</time>
      </trkpt>
      <trkpt lat="42.40612" lon="0.05839">
        <ele>808.5</ele>
        <time>2016-07-24T08:35:06Z</time>
      </trkpt>
      <trkpt lat="42.40609" lon="0.05835">
        <ele>808.6</ele>
        <time>2016-07-24T08:35:08Z</time>
      </trkpt>
      <trkpt lat="42.40606" lon="0.05833">
        <ele>808.6</ele>
        <time>2016-07-24T08:35:10Z</time>
      </trkpt>
      <trkpt lat="42.40604" lon="0.05829">
        <ele>808.5</ele>
        <time>2016-07-24T08:35:12Z</time>
      </trkpt>
      <trkpt lat="42.40602" lon="0.05826">
        <ele>808.5</ele>
        <time>2016-07-24T08:35:14Z</time>
      </trkpt>
      <trkpt lat="42.40601" lon="0.05822">
        <ele>808.5</ele>
        <time>2016-07-24T08:35:16Z</time>
      </trkpt>
      <trkpt lat="42.40599" lon="0.05817">
        <ele>808.4</ele>
        <time>2016-07-24T08:35:18Z</time>
      </trkpt>
      <trkpt lat="42.40597" lon="0.05813">
        <ele>808.3</ele>
        <time>2016-07-24T08:35:20Z</time>
      </trkpt>
      <trkpt lat="42.40594" lon="0.05809">
        <ele>808.1</ele>
        <time>2016-07-24T08:35:22Z</time>
      </trkpt>
      <trkpt lat="42.40593" lon="0.05804">
        <ele>808</ele>
        <time>2016-07-24T08:35:24Z</time>
      </trkpt>
      <trkpt lat="42.40592" lon="0.05798">
        <ele>807.9</ele>
        <time>2016-07-24T08:35:26Z</time>
      </trkpt>
      <trkpt lat="42.40591" lon="0.05792">
        <ele>807.7</ele>
        <time>2016-07-24T08:35:28Z</time>
      </trkpt>
      <trkpt lat="42.4059" lon="0.05789">
        <ele>807.5</ele>
        <time>2016-07-24T08:35:29Z</time>
      </trkpt>
      <trkpt lat="42.40588" lon="0.05784">
        <ele>807.1</ele>
        <time>2016-07-24T08:35:30Z</time>
      </trkpt>
      <trkpt lat="42.40585" lon="0.0578">
        <ele>806.6</ele>
        <time>2016-07-24T08:35:31Z</time>
      </trkpt>
      <trkpt lat="42.40583" lon="0.05775">
        <ele>806.2</ele>
        <time>2016-07-24T08:35:32Z</time>
      </trkpt>
      <trkpt lat="42.4058" lon="0.05772">
        <ele>805.6</ele>
        <time>2016-07-24T08:35:33Z</time>
      </trkpt>
      <trkpt lat="42.40577" lon="0.05768">
        <ele>805</ele>
        <time>2016-07-24T08:35:34Z</time>
      </trkpt>
      <trkpt lat="42.40573" lon="0.05765">
        <ele>804.4</ele>
        <time>2016-07-24T08:35:35Z</time>
      </trkpt>
      <trkpt lat="42.40569" lon="0.05762">
        <ele>803.6</ele>
        <time>2016-07-24T08:35:36Z</time>
      </trkpt>
      <trkpt lat="42.40566" lon="0.05759">
        <ele>802.9</ele>
        <time>2016-07-24T08:35:37Z</time>
      </trkpt>
      <trkpt lat="42.40562" lon="0.05755">
        <ele>802</ele>
        <time>2016-07-24T08:35:38Z</time>
      </trkpt>
      <trkpt lat="42.40558" lon="0.05752">
        <ele>801.1</ele>
        <time>2016-07-24T08:35:39Z</time>
      </trkpt>
      <trkpt lat="42.40554" lon="0.05749">
        <ele>800.2</ele>
        <time>2016-07-24T08:35:40Z</time>
      </trkpt>
      <trkpt lat="42.4055" lon="0.05746">
        <ele>799.4</ele>
        <time>2016-07-24T08:35:41Z</time>
      </trkpt>
      <trkpt lat="42.40546" lon="0.05744">
        <ele>798.6</ele>
        <time>2016-07-24T08:35:42Z</time>
      </trkpt>
      <trkpt lat="42.40543" lon="0.05743">
        <ele>798</ele>
        <time>2016-07-24T08:35:43Z</time>
      </trkpt>
      <trkpt lat="42.40541" lon="0.05742">
        <ele>797.7</ele>
        <time>2016-07-24T08:35:44Z</time>
      </trkpt>
      <trkpt lat="42.40537" lon="0.05741">
        <ele>797.7</ele>
        <time>2016-07-24T08:35:45Z</time>
      </trkpt>
      <trkpt lat="42.40534" lon="0.0574">
        <ele>797.7</ele>
        <time>2016-07-24T08:35:46Z</time>
      </trkpt>
      <trkpt lat="42.40531" lon="0.05737">
        <ele>797.6</ele>
        <time>2016-07-24T08:35:48Z</time>
      </trkpt>
      <trkpt lat="42.40528" lon="0.05734">
        <ele>797.4</ele>
        <time>2016-07-24T08:35:50Z</time>
      </trkpt>
      <trkpt lat="42.40526" lon="0.05731">
        <ele>797.3</ele>
        <time>2016-07-24T08:35:52Z</time>
      </trkpt>
      <trkpt lat="42.40524" lon="0.05727">
        <ele>796.9</ele>
        <time>2016-07-24T08:35:54Z</time>
      </trkpt>
      <trkpt lat="42.40522" lon="0.05724">
        <ele>796.8</ele>
        <time>2016-07-24T08:35:56Z</time>
      </trkpt>
      <trkpt lat="42.40519" lon="0.05725">
        <ele>796.9</ele>
        <time>2016-07-24T08:35:59Z</time>
      </trkpt>
      <trkpt lat="42.40517" lon="0.05726">
        <ele>797.2</ele>
        <time>2016-07-24T08:36:04Z</time>
      </trkpt>
      <trkpt lat="42.40517" lon="0.05721">
        <ele>796.7</ele>
        <time>2016-07-24T08:36:09Z</time>
      </trkpt>
      <trkpt lat="42.40515" lon="0.05718">
        <ele>796.5</ele>
        <time>2016-07-24T08:36:12Z</time>
      </trkpt>
      <trkpt lat="42.40513" lon="0.05716">
        <ele>796.5</ele>
        <time>2016-07-24T08:36:13Z</time>
      </trkpt>
      <trkpt lat="42.40509" lon="0.05713">
        <ele>796.4</ele>
        <time>2016-07-24T08:36:15Z</time>
      </trkpt>
      <trkpt lat="42.40506" lon="0.0571">
        <ele>796.3</ele>
        <time>2016-07-24T08:36:18Z</time>
      </trkpt>
      <trkpt lat="42.40504" lon="0.05706">
        <ele>795.9</ele>
        <time>2016-07-24T08:36:20Z</time>
      </trkpt>
      <trkpt lat="42.40502" lon="0.05701">
        <ele>795.4</ele>
        <time>2016-07-24T08:36:22Z</time>
      </trkpt>
      <trkpt lat="42.40501" lon="0.05696">
        <ele>794.7</ele>
        <time>2016-07-24T08:36:24Z</time>
      </trkpt>
      <trkpt lat="42.405" lon="0.0569">
        <ele>794.1</ele>
        <time>2016-07-24T08:36:26Z</time>
      </trkpt>
      <trkpt lat="42.40498" lon="0.05685">
        <ele>793.6</ele>
        <time>2016-07-24T08:36:28Z</time>
      </trkpt>
      <trkpt lat="42.40495" lon="0.05681">
        <ele>793.3</ele>
        <time>2016-07-24T08:36:30Z</time>
      </trkpt>
      <trkpt lat="42.40493" lon="0.05677">
        <ele>793.1</ele>
        <time>2016-07-24T08:36:32Z</time>
      </trkpt>
      <trkpt lat="42.40491" lon="0.05673">
        <ele>792.9</ele>
        <time>2016-07-24T08:36:34Z</time>
      </trkpt>
      <trkpt lat="42.40488" lon="0.05667">
        <ele>792.5</ele>
        <time>2016-07-24T08:36:36Z</time>
      </trkpt>
      <trkpt lat="42.40487" lon="0.05663">
        <ele>792.3</ele>
        <time>2016-07-24T08:36:37Z</time>
      </trkpt>
      <trkpt lat="42.40485" lon="0.05659">
        <ele>792.1</ele>
        <time>2016-07-24T08:36:38Z</time>
      </trkpt>
      <trkpt lat="42.40483" lon="0.05655">
        <ele>792</ele>
        <time>2016-07-24T08:36:39Z</time>
      </trkpt>
      <trkpt lat="42.40481" lon="0.05651">
        <ele>792</ele>
        <time>2016-07-24T08:36:40Z</time>
      </trkpt>
      <trkpt lat="42.40479" lon="0.05648">
        <ele>792</ele>
        <time>2016-07-24T08:36:41Z</time>
      </trkpt>
      <trkpt lat="42.40476" lon="0.05644">
        <ele>792.2</ele>
        <time>2016-07-24T08:36:43Z</time>
      </trkpt>
      <trkpt lat="42.40473" lon="0.05642">
        <ele>792.5</ele>
        <time>2016-07-24T08:36:45Z</time>
      </trkpt>
      <trkpt lat="42.4047" lon="0.0564">
        <ele>792.9</ele>
        <time>2016-07-24T08:36:47Z</time>
      </trkpt>
      <trkpt lat="42.40465" lon="0.05639">
        <ele>793.6</ele>
        <time>2016-07-24T08:36:49Z</time>
      </trkpt>
      <trkpt lat="42.4046" lon="0.05638">
        <ele>794.5</ele>
        <time>2016-07-24T08:36:51Z</time>
      </trkpt>
      <trkpt lat="42.40455" lon="0.05637">
        <ele>795.6</ele>
        <time>2016-07-24T08:36:53Z</time>
      </trkpt>
      <trkpt lat="42.40452" lon="0.05636">
        <ele>796.3</ele>
        <time>2016-07-24T08:36:54Z</time>
      </trkpt>
      <trkpt lat="42.40449" lon="0.05636">
        <ele>797</ele>
        <time>2016-07-24T08:36:55Z</time>
      </trkpt>
      <trkpt lat="42.40445" lon="0.05636">
        <ele>798.2</ele>
        <time>2016-07-24T08:36:57Z</time>
      </trkpt>
      <trkpt lat="42.40441" lon="0.05635">
        <ele>799.2</ele>
        <time>2016-07-24T08:36:59Z</time>
      </trkpt>
      <trkpt lat="42.40439" lon="0.05633">
        <ele>799.7</ele>
        <time>2016-07-24T08:37:01Z</time>
      </trkpt>
      <trkpt lat="42.40437" lon="0.05627">
        <ele>799.9</ele>
        <time>2016-07-24T08:37:03Z</time>
      </trkpt>
      <trkpt lat="42.40436" lon="0.05621">
        <ele>799.5</ele>
        <time>2016-07-24T08:37:05Z</time>
      </trkpt>
      <trkpt lat="42.40435" lon="0.05616">
        <ele>799</ele>
        <time>2016-07-24T08:37:07Z</time>
      </trkpt>
      <trkpt lat="42.40436" lon="0.05611">
        <ele>797.7</ele>
        <time>2016-07-24T08:37:09Z</time>
      </trkpt>
      <trkpt lat="42.40437" lon="0.05605">
        <ele>796.3</ele>
        <time>2016-07-24T08:37:11Z</time>
      </trkpt>
      <trkpt lat="42.40438" lon="0.05601">
        <ele>795.4</ele>
        <time>2016-07-24T08:37:12Z</time>
      </trkpt>
      <trkpt lat="42.40439" lon="0.05597">
        <ele>794.5</ele>
        <time>2016-07-24T08:37:13Z</time>
      </trkpt>
      <trkpt lat="42.4044" lon="0.05594">
        <ele>793.6</ele>
        <time>2016-07-24T08:37:14Z</time>
      </trkpt>
      <trkpt lat="42.40442" lon="0.05591">
        <ele>792.7</ele>
        <time>2016-07-24T08:37:15Z</time>
      </trkpt>
      <trkpt lat="42.40445" lon="0.05586">
        <ele>791.1</ele>
        <time>2016-07-24T08:37:17Z</time>
      </trkpt>
      <trkpt lat="42.40448" lon="0.05584">
        <ele>789.9</ele>
        <time>2016-07-24T08:37:19Z</time>
      </trkpt>
      <trkpt lat="42.40451" lon="0.05582">
        <ele>789.1</ele>
        <time>2016-07-24T08:37:23Z</time>
      </trkpt>
      <trkpt lat="42.40454" lon="0.05581">
        <ele>788.1</ele>
        <time>2016-07-24T08:37:27Z</time>
      </trkpt>
      <trkpt lat="42.40457" lon="0.05579">
        <ele>787.2</ele>
        <time>2016-07-24T08:37:30Z</time>
      </trkpt>
      <trkpt lat="42.4046" lon="0.05577">
        <ele>786.1</ele>
        <time>2016-07-24T08:37:32Z</time>
      </trkpt>
      <trkpt lat="42.40464" lon="0.05573">
        <ele>784.6</ele>
        <time>2016-07-24T08:37:34Z</time>
      </trkpt>
      <trkpt lat="42.40465" lon="0.0557">
        <ele>783.7</ele>
        <time>2016-07-24T08:37:35Z</time>
      </trkpt>
      <trkpt lat="42.40467" lon="0.05565">
        <ele>782.5</ele>
        <time>2016-07-24T08:37:37Z</time>
      </trkpt>
      <trkpt lat="42.40467" lon="0.05561">
        <ele>782</ele>
        <time>2016-07-24T08:37:39Z</time>
      </trkpt>
      <trkpt lat="42.40467" lon="0.05555">
        <ele>780.9</ele>
        <time>2016-07-24T08:37:41Z</time>
      </trkpt>
      <trkpt lat="42.40467" lon="0.05551">
        <ele>780.1</ele>
        <time>2016-07-24T08:37:42Z</time>
      </trkpt>
      <trkpt lat="42.40467" lon="0.05547">
        <ele>779.5</ele>
        <time>2016-07-24T08:37:43Z</time>
      </trkpt>
      <trkpt lat="42.40466" lon="0.05541">
        <ele>778.8</ele>
        <time>2016-07-24T08:37:45Z</time>
      </trkpt>
      <trkpt lat="42.40465" lon="0.05533">
        <ele>778</ele>
        <time>2016-07-24T08:37:47Z</time>
      </trkpt>
      <trkpt lat="42.40464" lon="0.05528">
        <ele>777.4</ele>
        <time>2016-07-24T08:37:48Z</time>
      </trkpt>
      <trkpt lat="42.40463" lon="0.05523">
        <ele>776.8</ele>
        <time>2016-07-24T08:37:49Z</time>
      </trkpt>
      <trkpt lat="42.40463" lon="0.05519">
        <ele>776.2</ele>
        <time>2016-07-24T08:37:50Z</time>
      </trkpt>
      <trkpt lat="42.40462" lon="0.05512">
        <ele>775.4</ele>
        <time>2016-07-24T08:37:52Z</time>
      </trkpt>
      <trkpt lat="42.40461" lon="0.05507">
        <ele>774.9</ele>
        <time>2016-07-24T08:37:54Z</time>
      </trkpt>
      <trkpt lat="42.40461" lon="0.05503">
        <ele>774.4</ele>
        <time>2016-07-24T08:37:56Z</time>
      </trkpt>
      <trkpt lat="42.40461" lon="0.05499">
        <ele>773.8</ele>
        <time>2016-07-24T08:41:02Z</time>
      </trkpt>
      <trkpt lat="42.40459" lon="0.05497">
        <ele>773.8</ele>
        <time>2016-07-24T08:41:04Z</time>
      </trkpt>
      <trkpt lat="42.40457" lon="0.0549">
        <ele>773.1</ele>
        <time>2016-07-24T08:41:06Z</time>
      </trkpt>
      <trkpt lat="42.40455" lon="0.05486">
        <ele>772.6</ele>
        <time>2016-07-24T08:41:07Z</time>
      </trkpt>
      <trkpt lat="42.40454" lon="0.05481">
        <ele>772.2</ele>
        <time>2016-07-24T08:41:08Z</time>
      </trkpt>
      <trkpt lat="42.40452" lon="0.05477">
        <ele>771.6</ele>
        <time>2016-07-24T08:41:09Z</time>
      </trkpt>
      <trkpt lat="42.40451" lon="0.05472">
        <ele>771</ele>
        <time>2016-07-24T08:41:10Z</time>
      </trkpt>
      <trkpt lat="42.4045" lon="0.05467">
        <ele>770.3</ele>
        <time>2016-07-24T08:41:11Z</time>
      </trkpt>
      <trkpt lat="42.4045" lon="0.05463">
        <ele>769.6</ele>
        <time>2016-07-24T08:41:12Z</time>
      </trkpt>
      <trkpt lat="42.4045" lon="0.05459">
        <ele>768.9</ele>
        <time>2016-07-24T08:41:13Z</time>
      </trkpt>
      <trkpt lat="42.4045" lon="0.05455">
        <ele>768.4</ele>
        <time>2016-07-24T08:41:14Z</time>
      </trkpt>
      <trkpt lat="42.4045" lon="0.05451">
        <ele>767.9</ele>
        <time>2016-07-24T08:41:15Z</time>
      </trkpt>
      <trkpt lat="42.4045" lon="0.05447">
        <ele>767.5</ele>
        <time>2016-07-24T08:41:16Z</time>
      </trkpt>
      <trkpt lat="42.40448" lon="0.05442">
        <ele>766.8</ele>
        <time>2016-07-24T08:41:18Z</time>
      </trkpt>
      <trkpt lat="42.40446" lon="0.05437">
        <ele>766.4</ele>
        <time>2016-07-24T08:41:20Z</time>
      </trkpt>
      <trkpt lat="42.40442" lon="0.05432">
        <ele>765.8</ele>
        <time>2016-07-24T08:41:22Z</time>
      </trkpt>
      <trkpt lat="42.4044" lon="0.05429">
        <ele>765.4</ele>
        <time>2016-07-24T08:41:23Z</time>
      </trkpt>
      <trkpt lat="42.40438" lon="0.05425">
        <ele>765</ele>
        <time>2016-07-24T08:41:24Z</time>
      </trkpt>
      <trkpt lat="42.40436" lon="0.05422">
        <ele>764.6</ele>
        <time>2016-07-24T08:41:25Z</time>
      </trkpt>
      <trkpt lat="42.40433" lon="0.0542">
        <ele>764.3</ele>
        <time>2016-07-24T08:41:26Z</time>
      </trkpt>
      <trkpt lat="42.40431" lon="0.05417">
        <ele>763.9</ele>
        <time>2016-07-24T08:41:27Z</time>
      </trkpt>
      <trkpt lat="42.40428" lon="0.05413">
        <ele>763.3</ele>
        <time>2016-07-24T08:41:28Z</time>
      </trkpt>
      <trkpt lat="42.40426" lon="0.0541">
        <ele>762.7</ele>
        <time>2016-07-24T08:41:29Z</time>
      </trkpt>
      <trkpt lat="42.40424" lon="0.05406">
        <ele>762.1</ele>
        <time>2016-07-24T08:41:30Z</time>
      </trkpt>
      <trkpt lat="42.40423" lon="0.05403">
        <ele>761.5</ele>
        <time>2016-07-24T08:41:31Z</time>
      </trkpt>
      <trkpt lat="42.40421" lon="0.05399">
        <ele>760.8</ele>
        <time>2016-07-24T08:41:32Z</time>
      </trkpt>
      <trkpt lat="42.40421" lon="0.05394">
        <ele>759.8</ele>
        <time>2016-07-24T08:41:33Z</time>
      </trkpt>
      <trkpt lat="42.4042" lon="0.05388">
        <ele>758.7</ele>
        <time>2016-07-24T08:41:34Z</time>
      </trkpt>
      <trkpt lat="42.40419" lon="0.05383">
        <ele>757.6</ele>
        <time>2016-07-24T08:41:35Z</time>
      </trkpt>
      <trkpt lat="42.40419" lon="0.05378">
        <ele>756.6</ele>
        <time>2016-07-24T08:41:36Z</time>
      </trkpt>
      <trkpt lat="42.40418" lon="0.05372">
        <ele>756</ele>
        <time>2016-07-24T08:41:37Z</time>
      </trkpt>
      <trkpt lat="42.40418" lon="0.05366">
        <ele>755.8</ele>
        <time>2016-07-24T08:41:38Z</time>
      </trkpt>
      <trkpt lat="42.40417" lon="0.05361">
        <ele>755.6</ele>
        <time>2016-07-24T08:41:39Z</time>
      </trkpt>
      <trkpt lat="42.40416" lon="0.05356">
        <ele>755.4</ele>
        <time>2016-07-24T08:41:40Z</time>
      </trkpt>
      <trkpt lat="42.40415" lon="0.05351">
        <ele>755.1</ele>
        <time>2016-07-24T08:41:41Z</time>
      </trkpt>
      <trkpt lat="42.40413" lon="0.05345">
        <ele>754.7</ele>
        <time>2016-07-24T08:41:42Z</time>
      </trkpt>
      <trkpt lat="42.40411" lon="0.0534">
        <ele>754.4</ele>
        <time>2016-07-24T08:41:43Z</time>
      </trkpt>
      <trkpt lat="42.40409" lon="0.05335">
        <ele>754</ele>
        <time>2016-07-24T08:41:44Z</time>
      </trkpt>
      <trkpt lat="42.40408" lon="0.05332">
        <ele>753.8</ele>
        <time>2016-07-24T08:41:45Z</time>
      </trkpt>
      <trkpt lat="42.40408" lon="0.05325">
        <ele>753.6</ele>
        <time>2016-07-24T08:41:47Z</time>
      </trkpt>
      <trkpt lat="42.40408" lon="0.05319">
        <ele>753.4</ele>
        <time>2016-07-24T08:41:49Z</time>
      </trkpt>
      <trkpt lat="42.40406" lon="0.05316">
        <ele>753</ele>
        <time>2016-07-24T08:41:50Z</time>
      </trkpt>
      <trkpt lat="42.40403" lon="0.05314">
        <ele>752.6</ele>
        <time>2016-07-24T08:41:51Z</time>
      </trkpt>
      <trkpt lat="42.404" lon="0.05312">
        <ele>752.1</ele>
        <time>2016-07-24T08:41:52Z</time>
      </trkpt>
      <trkpt lat="42.40397" lon="0.0531">
        <ele>751.7</ele>
        <time>2016-07-24T08:41:53Z</time>
      </trkpt>
      <trkpt lat="42.40393" lon="0.05309">
        <ele>751.2</ele>
        <time>2016-07-24T08:41:54Z</time>
      </trkpt>
      <trkpt lat="42.40389" lon="0.05308">
        <ele>750.6</ele>
        <time>2016-07-24T08:41:55Z</time>
      </trkpt>
      <trkpt lat="42.40384" lon="0.05306">
        <ele>750</ele>
        <time>2016-07-24T08:41:56Z</time>
      </trkpt>
      <trkpt lat="42.4038" lon="0.05305">
        <ele>749.4</ele>
        <time>2016-07-24T08:41:57Z</time>
      </trkpt>
      <trkpt lat="42.40376" lon="0.05301">
        <ele>748.6</ele>
        <time>2016-07-24T08:41:58Z</time>
      </trkpt>
      <trkpt lat="42.40372" lon="0.05296">
        <ele>748</ele>
        <time>2016-07-24T08:41:59Z</time>
      </trkpt>
      <trkpt lat="42.40368" lon="0.0529">
        <ele>747.5</ele>
        <time>2016-07-24T08:42:00Z</time>
      </trkpt>
      <trkpt lat="42.40366" lon="0.05282">
        <ele>747.8</ele>
        <time>2016-07-24T08:42:01Z</time>
      </trkpt>
      <trkpt lat="42.40364" lon="0.05274">
        <ele>748.2</ele>
        <time>2016-07-24T08:42:02Z</time>
      </trkpt>
      <trkpt lat="42.40363" lon="0.05265">
        <ele>748.6</ele>
        <time>2016-07-24T08:42:03Z</time>
      </trkpt>
      <trkpt lat="42.4036" lon="0.05257">
        <ele>749</ele>
        <time>2016-07-24T08:42:04Z</time>
      </trkpt>
      <trkpt lat="42.40358" lon="0.05249">
        <ele>749.3</ele>
        <time>2016-07-24T08:42:05Z</time>
      </trkpt>
      <trkpt lat="42.40356" lon="0.0524">
        <ele>749.9</ele>
        <time>2016-07-24T08:42:06Z</time>
      </trkpt>
      <trkpt lat="42.40355" lon="0.05232">
        <ele>750.3</ele>
        <time>2016-07-24T08:42:07Z</time>
      </trkpt>
      <trkpt lat="42.40352" lon="0.05224">
        <ele>750.8</ele>
        <time>2016-07-24T08:42:08Z</time>
      </trkpt>
      <trkpt lat="42.4035" lon="0.05217">
        <ele>751.1</ele>
        <time>2016-07-24T08:42:09Z</time>
      </trkpt>
      <trkpt lat="42.40348" lon="0.05211">
        <ele>751.5</ele>
        <time>2016-07-24T08:42:10Z</time>
      </trkpt>
      <trkpt lat="42.40345" lon="0.05199">
        <ele>751.1</ele>
        <time>2016-07-24T08:42:12Z</time>
      </trkpt>
      <trkpt lat="42.40345" lon="0.05193">
        <ele>750.7</ele>
        <time>2016-07-24T08:42:13Z</time>
      </trkpt>
      <trkpt lat="42.40346" lon="0.05188">
        <ele>750.5</ele>
        <time>2016-07-24T08:42:14Z</time>
      </trkpt>
      <trkpt lat="42.40347" lon="0.05184">
        <ele>750.4</ele>
        <time>2016-07-24T08:42:15Z</time>
      </trkpt>
      <trkpt lat="42.40348" lon="0.05179">
        <ele>750.2</ele>
        <time>2016-07-24T08:42:16Z</time>
      </trkpt>
      <trkpt lat="42.40347" lon="0.05174">
        <ele>749.9</ele>
        <time>2016-07-24T08:42:17Z</time>
      </trkpt>
      <trkpt lat="42.40346" lon="0.05169">
        <ele>749.6</ele>
        <time>2016-07-24T08:42:18Z</time>
      </trkpt>
      <trkpt lat="42.40345" lon="0.05163">
        <ele>749.2</ele>
        <time>2016-07-24T08:42:19Z</time>
      </trkpt>
      <trkpt lat="42.40343" lon="0.05157">
        <ele>748.8</ele>
        <time>2016-07-24T08:42:20Z</time>
      </trkpt>
      <trkpt lat="42.40341" lon="0.05151">
        <ele>748.3</ele>
        <time>2016-07-24T08:42:21Z</time>
      </trkpt>
      <trkpt lat="42.40338" lon="0.05143">
        <ele>747.7</ele>
        <time>2016-07-24T08:42:22Z</time>
      </trkpt>
      <trkpt lat="42.40335" lon="0.05135">
        <ele>747.1</ele>
        <time>2016-07-24T08:42:23Z</time>
      </trkpt>
      <trkpt lat="42.40332" lon="0.05127">
        <ele>746.5</ele>
        <time>2016-07-24T08:42:24Z</time>
      </trkpt>
      <trkpt lat="42.4033" lon="0.05118">
        <ele>746.3</ele>
        <time>2016-07-24T08:42:25Z</time>
      </trkpt>
      <trkpt lat="42.40327" lon="0.05109">
        <ele>746.1</ele>
        <time>2016-07-24T08:42:26Z</time>
      </trkpt>
      <trkpt lat="42.40326" lon="0.051">
        <ele>746</ele>
        <time>2016-07-24T08:42:27Z</time>
      </trkpt>
      <trkpt lat="42.40325" lon="0.05091">
        <ele>746</ele>
        <time>2016-07-24T08:42:28Z</time>
      </trkpt>
      <trkpt lat="42.40324" lon="0.05082">
        <ele>746</ele>
        <time>2016-07-24T08:42:29Z</time>
      </trkpt>
      <trkpt lat="42.40322" lon="0.05074">
        <ele>745.9</ele>
        <time>2016-07-24T08:42:30Z</time>
      </trkpt>
      <trkpt lat="42.40321" lon="0.05066">
        <ele>745.9</ele>
        <time>2016-07-24T08:42:31Z</time>
      </trkpt>
      <trkpt lat="42.40319" lon="0.05058">
        <ele>745.9</ele>
        <time>2016-07-24T08:42:32Z</time>
      </trkpt>
      <trkpt lat="42.40316" lon="0.05044">
        <ele>746</ele>
        <time>2016-07-24T08:42:34Z</time>
      </trkpt>
      <trkpt lat="42.40314" lon="0.05038">
        <ele>746.3</ele>
        <time>2016-07-24T08:42:35Z</time>
      </trkpt>
      <trkpt lat="42.40313" lon="0.05032">
        <ele>746.7</ele>
        <time>2016-07-24T08:42:36Z</time>
      </trkpt>
      <trkpt lat="42.40312" lon="0.05025">
        <ele>747.1</ele>
        <time>2016-07-24T08:42:37Z</time>
      </trkpt>
      <trkpt lat="42.40311" lon="0.0502">
        <ele>747.6</ele>
        <time>2016-07-24T08:42:38Z</time>
      </trkpt>
      <trkpt lat="42.4031" lon="0.05014">
        <ele>748</ele>
        <time>2016-07-24T08:42:39Z</time>
      </trkpt>
      <trkpt lat="42.40308" lon="0.05009">
        <ele>748.5</ele>
        <time>2016-07-24T08:42:40Z</time>
      </trkpt>
      <trkpt lat="42.40306" lon="0.05004">
        <ele>748.9</ele>
        <time>2016-07-24T08:42:41Z</time>
      </trkpt>
      <trkpt lat="42.40305" lon="0.04999">
        <ele>749.4</ele>
        <time>2016-07-24T08:42:42Z</time>
      </trkpt>
      <trkpt lat="42.40304" lon="0.04994">
        <ele>749.8</ele>
        <time>2016-07-24T08:42:43Z</time>
      </trkpt>
      <trkpt lat="42.40303" lon="0.04989">
        <ele>750.3</ele>
        <time>2016-07-24T08:42:44Z</time>
      </trkpt>
      <trkpt lat="42.40302" lon="0.04985">
        <ele>750.7</ele>
        <time>2016-07-24T08:42:45Z</time>
      </trkpt>
      <trkpt lat="42.40301" lon="0.04979">
        <ele>751.3</ele>
        <time>2016-07-24T08:42:47Z</time>
      </trkpt>
      <trkpt lat="42.403" lon="0.04972">
        <ele>751.9</ele>
        <time>2016-07-24T08:42:49Z</time>
      </trkpt>
      <trkpt lat="42.40299" lon="0.04965">
        <ele>752.6</ele>
        <time>2016-07-24T08:42:51Z</time>
      </trkpt>
      <trkpt lat="42.40299" lon="0.04958">
        <ele>753.2</ele>
        <time>2016-07-24T08:42:53Z</time>
      </trkpt>
      <trkpt lat="42.40298" lon="0.04952">
        <ele>753.7</ele>
        <time>2016-07-24T08:42:55Z</time>
      </trkpt>
      <trkpt lat="42.40297" lon="0.04946">
        <ele>754</ele>
        <time>2016-07-24T08:42:57Z</time>
      </trkpt>
      <trkpt lat="42.40295" lon="0.04941">
        <ele>754.4</ele>
        <time>2016-07-24T08:42:59Z</time>
      </trkpt>
      <trkpt lat="42.40292" lon="0.04932">
        <ele>755.2</ele>
        <time>2016-07-24T08:43:02Z</time>
      </trkpt>
      <trkpt lat="42.40291" lon="0.04926">
        <ele>755.5</ele>
        <time>2016-07-24T08:43:04Z</time>
      </trkpt>
      <trkpt lat="42.4029" lon="0.04921">
        <ele>755.7</ele>
        <time>2016-07-24T08:43:06Z</time>
      </trkpt>
      <trkpt lat="42.40289" lon="0.04915">
        <ele>755.9</ele>
        <time>2016-07-24T08:43:08Z</time>
      </trkpt>
      <trkpt lat="42.40288" lon="0.0491">
        <ele>756</ele>
        <time>2016-07-24T08:43:10Z</time>
      </trkpt>
      <trkpt lat="42.40287" lon="0.04904">
        <ele>756.2</ele>
        <time>2016-07-24T08:43:12Z</time>
      </trkpt>
      <trkpt lat="42.40286" lon="0.04899">
        <ele>756.3</ele>
        <time>2016-07-24T08:43:14Z</time>
      </trkpt>
      <trkpt lat="42.40284" lon="0.04894">
        <ele>756.4</ele>
        <time>2016-07-24T08:43:16Z</time>
      </trkpt>
      <trkpt lat="42.40283" lon="0.04889">
        <ele>756.5</ele>
        <time>2016-07-24T08:43:18Z</time>
      </trkpt>
      <trkpt lat="42.40282" lon="0.04885">
        <ele>756.6</ele>
        <time>2016-07-24T08:43:20Z</time>
      </trkpt>
      <trkpt lat="42.4028" lon="0.0488">
        <ele>756.7</ele>
        <time>2016-07-24T08:43:22Z</time>
      </trkpt>
      <trkpt lat="42.40278" lon="0.04876">
        <ele>756.6</ele>
        <time>2016-07-24T08:43:24Z</time>
      </trkpt>
      <trkpt lat="42.40275" lon="0.04872">
        <ele>756.4</ele>
        <time>2016-07-24T08:43:26Z</time>
      </trkpt>
      <trkpt lat="42.40272" lon="0.04867">
        <ele>756.1</ele>
        <time>2016-07-24T08:43:28Z</time>
      </trkpt>
      <trkpt lat="42.40269" lon="0.04862">
        <ele>755.7</ele>
        <time>2016-07-24T08:43:30Z</time>
      </trkpt>
      <trkpt lat="42.40266" lon="0.04856">
        <ele>755.5</ele>
        <time>2016-07-24T08:43:32Z</time>
      </trkpt>
      <trkpt lat="42.40265" lon="0.04852">
        <ele>755.4</ele>
        <time>2016-07-24T08:43:33Z</time>
      </trkpt>
      <trkpt lat="42.40265" lon="0.04848">
        <ele>755.3</ele>
        <time>2016-07-24T08:43:34Z</time>
      </trkpt>
      <trkpt lat="42.40263" lon="0.04842">
        <ele>755.1</ele>
        <time>2016-07-24T08:43:36Z</time>
      </trkpt>
      <trkpt lat="42.40261" lon="0.04836">
        <ele>755</ele>
        <time>2016-07-24T08:43:38Z</time>
      </trkpt>
      <trkpt lat="42.40258" lon="0.0483">
        <ele>754.7</ele>
        <time>2016-07-24T08:43:40Z</time>
      </trkpt>
      <trkpt lat="42.40257" lon="0.04826">
        <ele>754.6</ele>
        <time>2016-07-24T08:43:41Z</time>
      </trkpt>
      <trkpt lat="42.40256" lon="0.04823">
        <ele>754.5</ele>
        <time>2016-07-24T08:43:42Z</time>
      </trkpt>
      <trkpt lat="42.40254" lon="0.04819">
        <ele>754.3</ele>
        <time>2016-07-24T08:43:43Z</time>
      </trkpt>
      <trkpt lat="42.40252" lon="0.04816">
        <ele>754.2</ele>
        <time>2016-07-24T08:43:44Z</time>
      </trkpt>
      <trkpt lat="42.4025" lon="0.04813">
        <ele>754</ele>
        <time>2016-07-24T08:43:45Z</time>
      </trkpt>
      <trkpt lat="42.40248" lon="0.0481">
        <ele>753.9</ele>
        <time>2016-07-24T08:43:46Z</time>
      </trkpt>
      <trkpt lat="42.40246" lon="0.04807">
        <ele>753.7</ele>
        <time>2016-07-24T08:43:47Z</time>
      </trkpt>
      <trkpt lat="42.40244" lon="0.04803">
        <ele>753.5</ele>
        <time>2016-07-24T08:43:48Z</time>
      </trkpt>
      <trkpt lat="42.40242" lon="0.048">
        <ele>753.4</ele>
        <time>2016-07-24T08:43:49Z</time>
      </trkpt>
      <trkpt lat="42.4024" lon="0.04796">
        <ele>753.3</ele>
        <time>2016-07-24T08:43:50Z</time>
      </trkpt>
      <trkpt lat="42.40239" lon="0.04793">
        <ele>753.2</ele>
        <time>2016-07-24T08:43:51Z</time>
      </trkpt>
      <trkpt lat="42.40237" lon="0.04789">
        <ele>753.4</ele>
        <time>2016-07-24T08:43:52Z</time>
      </trkpt>
      <trkpt lat="42.40236" lon="0.04786">
        <ele>753.6</ele>
        <time>2016-07-24T08:43:53Z</time>
      </trkpt>
      <trkpt lat="42.40234" lon="0.04783">
        <ele>754</ele>
        <time>2016-07-24T08:43:54Z</time>
      </trkpt>
      <trkpt lat="42.40233" lon="0.04779">
        <ele>754.3</ele>
        <time>2016-07-24T08:43:55Z</time>
      </trkpt>
      <trkpt lat="42.40232" lon="0.04776">
        <ele>754.7</ele>
        <time>2016-07-24T08:43:56Z</time>
      </trkpt>
      <trkpt lat="42.40229" lon="0.04769">
        <ele>755.3</ele>
        <time>2016-07-24T08:43:58Z</time>
      </trkpt>
      <trkpt lat="42.40228" lon="0.04766">
        <ele>755.6</ele>
        <time>2016-07-24T08:43:59Z</time>
      </trkpt>
      <trkpt lat="42.40224" lon="0.04758">
        <ele>756.4</ele>
        <time>2016-07-24T08:44:01Z</time>
      </trkpt>
      <trkpt lat="42.40222" lon="0.04754">
        <ele>756.8</ele>
        <time>2016-07-24T08:44:02Z</time>
      </trkpt>
      <trkpt lat="42.4022" lon="0.04749">
        <ele>757.3</ele>
        <time>2016-07-24T08:44:03Z</time>
      </trkpt>
      <trkpt lat="42.40219" lon="0.04743">
        <ele>758</ele>
        <time>2016-07-24T08:44:04Z</time>
      </trkpt>
      <trkpt lat="42.4022" lon="0.04736">
        <ele>758.9</ele>
        <time>2016-07-24T08:44:05Z</time>
      </trkpt>
      <trkpt lat="42.40221" lon="0.0473">
        <ele>759.7</ele>
        <time>2016-07-24T08:44:06Z</time>
      </trkpt>
      <trkpt lat="42.40223" lon="0.04725">
        <ele>760.4</ele>
        <time>2016-07-24T08:44:07Z</time>
      </trkpt>
      <trkpt lat="42.40224" lon="0.04721">
        <ele>761</ele>
        <time>2016-07-24T08:44:08Z</time>
      </trkpt>
      <trkpt lat="42.40226" lon="0.04717">
        <ele>761.6</ele>
        <time>2016-07-24T08:44:09Z</time>
      </trkpt>
      <trkpt lat="42.40227" lon="0.04713">
        <ele>762.1</ele>
        <time>2016-07-24T08:44:10Z</time>
      </trkpt>
      <trkpt lat="42.40228" lon="0.04709">
        <ele>762.6</ele>
        <time>2016-07-24T08:44:11Z</time>
      </trkpt>
      <trkpt lat="42.40229" lon="0.04705">
        <ele>763.3</ele>
        <time>2016-07-24T08:44:12Z</time>
      </trkpt>
      <trkpt lat="42.4023" lon="0.04701">
        <ele>763.9</ele>
        <time>2016-07-24T08:44:13Z</time>
      </trkpt>
      <trkpt lat="42.40231" lon="0.04697">
        <ele>764.7</ele>
        <time>2016-07-24T08:44:14Z</time>
      </trkpt>
      <trkpt lat="42.40232" lon="0.04693">
        <ele>765.4</ele>
        <time>2016-07-24T08:44:15Z</time>
      </trkpt>
      <trkpt lat="42.40233" lon="0.04689">
        <ele>766</ele>
        <time>2016-07-24T08:44:16Z</time>
      </trkpt>
      <trkpt lat="42.40234" lon="0.04685">
        <ele>766.7</ele>
        <time>2016-07-24T08:44:17Z</time>
      </trkpt>
      <trkpt lat="42.40235" lon="0.04681">
        <ele>767.4</ele>
        <time>2016-07-24T08:44:18Z</time>
      </trkpt>
      <trkpt lat="42.40236" lon="0.04677">
        <ele>768</ele>
        <time>2016-07-24T08:44:19Z</time>
      </trkpt>
      <trkpt lat="42.40237" lon="0.04673">
        <ele>768.6</ele>
        <time>2016-07-24T08:44:20Z</time>
      </trkpt>
      <trkpt lat="42.40238" lon="0.04667">
        <ele>769.7</ele>
        <time>2016-07-24T08:44:22Z</time>
      </trkpt>
      <trkpt lat="42.40238" lon="0.04661">
        <ele>770.7</ele>
        <time>2016-07-24T08:44:24Z</time>
      </trkpt>
      <trkpt lat="42.40237" lon="0.04655">
        <ele>771.6</ele>
        <time>2016-07-24T08:44:26Z</time>
      </trkpt>
      <trkpt lat="42.40235" lon="0.0465">
        <ele>772.3</ele>
        <time>2016-07-24T08:44:28Z</time>
      </trkpt>
      <trkpt lat="42.40233" lon="0.04645">
        <ele>773</ele>
        <time>2016-07-24T08:44:30Z</time>
      </trkpt>
      <trkpt lat="42.40233" lon="0.0464">
        <ele>773.7</ele>
        <time>2016-07-24T08:44:32Z</time>
      </trkpt>
      <trkpt lat="42.40232" lon="0.04635">
        <ele>774.5</ele>
        <time>2016-07-24T08:44:34Z</time>
      </trkpt>
      <trkpt lat="42.40232" lon="0.0463">
        <ele>775.2</ele>
        <time>2016-07-24T08:44:36Z</time>
      </trkpt>
      <trkpt lat="42.40234" lon="0.04626">
        <ele>776</ele>
        <time>2016-07-24T08:44:38Z</time>
      </trkpt>
      <trkpt lat="42.40236" lon="0.04622">
        <ele>777.1</ele>
        <time>2016-07-24T08:44:40Z</time>
      </trkpt>
      <trkpt lat="42.4024" lon="0.04621">
        <ele>777.8</ele>
        <time>2016-07-24T08:44:42Z</time>
      </trkpt>
      <trkpt lat="42.40244" lon="0.04621">
        <ele>778.1</ele>
        <time>2016-07-24T08:44:44Z</time>
      </trkpt>
      <trkpt lat="42.40248" lon="0.0462">
        <ele>778.5</ele>
        <time>2016-07-24T08:44:46Z</time>
      </trkpt>
      <trkpt lat="42.40252" lon="0.0462">
        <ele>779</ele>
        <time>2016-07-24T08:44:48Z</time>
      </trkpt>
      <trkpt lat="42.40256" lon="0.04618">
        <ele>779.7</ele>
        <time>2016-07-24T08:44:50Z</time>
      </trkpt>
      <trkpt lat="42.4026" lon="0.04617">
        <ele>780.3</ele>
        <time>2016-07-24T08:44:52Z</time>
      </trkpt>
      <trkpt lat="42.40266" lon="0.04617">
        <ele>780.9</ele>
        <time>2016-07-24T08:44:54Z</time>
      </trkpt>
      <trkpt lat="42.40269" lon="0.04617">
        <ele>781</ele>
        <time>2016-07-24T08:44:55Z</time>
      </trkpt>
      <trkpt lat="42.40271" lon="0.04618">
        <ele>781.2</ele>
        <time>2016-07-24T08:44:56Z</time>
      </trkpt>
      <trkpt lat="42.40274" lon="0.04618">
        <ele>781.3</ele>
        <time>2016-07-24T08:44:57Z</time>
      </trkpt>
      <trkpt lat="42.40277" lon="0.04618">
        <ele>781.5</ele>
        <time>2016-07-24T08:44:58Z</time>
      </trkpt>
      <trkpt lat="42.40281" lon="0.04618">
        <ele>781.8</ele>
        <time>2016-07-24T08:44:59Z</time>
      </trkpt>
      <trkpt lat="42.40284" lon="0.04618">
        <ele>782</ele>
        <time>2016-07-24T08:45:00Z</time>
      </trkpt>
      <trkpt lat="42.40287" lon="0.04618">
        <ele>782.3</ele>
        <time>2016-07-24T08:45:01Z</time>
      </trkpt>
      <trkpt lat="42.4029" lon="0.04618">
        <ele>782.6</ele>
        <time>2016-07-24T08:45:02Z</time>
      </trkpt>
      <trkpt lat="42.40294" lon="0.04618">
        <ele>782.8</ele>
        <time>2016-07-24T08:45:03Z</time>
      </trkpt>
      <trkpt lat="42.40297" lon="0.04618">
        <ele>783.1</ele>
        <time>2016-07-24T08:45:04Z</time>
      </trkpt>
      <trkpt lat="42.40301" lon="0.04618">
        <ele>783.4</ele>
        <time>2016-07-24T08:45:05Z</time>
      </trkpt>
      <trkpt lat="42.40305" lon="0.04617">
        <ele>783.8</ele>
        <time>2016-07-24T08:45:06Z</time>
      </trkpt>
      <trkpt lat="42.40309" lon="0.04617">
        <ele>784.2</ele>
        <time>2016-07-24T08:45:07Z</time>
      </trkpt>
      <trkpt lat="42.40313" lon="0.04617">
        <ele>784.4</ele>
        <time>2016-07-24T08:45:08Z</time>
      </trkpt>
      <trkpt lat="42.40317" lon="0.04617">
        <ele>784.5</ele>
        <time>2016-07-24T08:45:09Z</time>
      </trkpt>
      <trkpt lat="42.40321" lon="0.0462">
        <ele>784.2</ele>
        <time>2016-07-24T08:45:10Z</time>
      </trkpt>
      <trkpt lat="42.40325" lon="0.04623">
        <ele>783.5</ele>
        <time>2016-07-24T08:45:11Z</time>
      </trkpt>
      <trkpt lat="42.40327" lon="0.04627">
        <ele>782.8</ele>
        <time>2016-07-24T08:45:12Z</time>
      </trkpt>
      <trkpt lat="42.4033" lon="0.04631">
        <ele>782.1</ele>
        <time>2016-07-24T08:45:13Z</time>
      </trkpt>
      <trkpt lat="42.40333" lon="0.04635">
        <ele>781.6</ele>
        <time>2016-07-24T08:45:14Z</time>
      </trkpt>
      <trkpt lat="42.40336" lon="0.04638">
        <ele>781.2</ele>
        <time>2016-07-24T08:45:15Z</time>
      </trkpt>
      <trkpt lat="42.40339" lon="0.0464">
        <ele>780.9</ele>
        <time>2016-07-24T08:45:16Z</time>
      </trkpt>
      <trkpt lat="42.40342" lon="0.04642">
        <ele>780.6</ele>
        <time>2016-07-24T08:45:17Z</time>
      </trkpt>
      <trkpt lat="42.40345" lon="0.04644">
        <ele>780.4</ele>
        <time>2016-07-24T08:45:18Z</time>
      </trkpt>
      <trkpt lat="42.40349" lon="0.04646">
        <ele>780.3</ele>
        <time>2016-07-24T08:45:19Z</time>
      </trkpt>
      <trkpt lat="42.40353" lon="0.04647">
        <ele>780.3</ele>
        <time>2016-07-24T08:45:20Z</time>
      </trkpt>
      <trkpt lat="42.40357" lon="0.04647">
        <ele>780.5</ele>
        <time>2016-07-24T08:45:21Z</time>
      </trkpt>
      <trkpt lat="42.40362" lon="0.04647">
        <ele>780.8</ele>
        <time>2016-07-24T08:45:22Z</time>
      </trkpt>
      <trkpt lat="42.40367" lon="0.04646">
        <ele>781.3</ele>
        <time>2016-07-24T08:45:23Z</time>
      </trkpt>
      <trkpt lat="42.40372" lon="0.04644">
        <ele>781.9</ele>
        <time>2016-07-24T08:45:24Z</time>
      </trkpt>
      <trkpt lat="42.40377" lon="0.04641">
        <ele>782.7</ele>
        <time>2016-07-24T08:45:25Z</time>
      </trkpt>
      <trkpt lat="42.40382" lon="0.04638">
        <ele>783.4</ele>
        <time>2016-07-24T08:45:26Z</time>
      </trkpt>
      <trkpt lat="42.40387" lon="0.04637">
        <ele>783.8</ele>
        <time>2016-07-24T08:45:27Z</time>
      </trkpt>
      <trkpt lat="42.40392" lon="0.04637">
        <ele>783.8</ele>
        <time>2016-07-24T08:45:28Z</time>
      </trkpt>
      <trkpt lat="42.40396" lon="0.04639">
        <ele>783.4</ele>
        <time>2016-07-24T08:45:29Z</time>
      </trkpt>
      <trkpt lat="42.404" lon="0.04641">
        <ele>782.9</ele>
        <time>2016-07-24T08:45:30Z</time>
      </trkpt>
      <trkpt lat="42.40403" lon="0.04643">
        <ele>782.5</ele>
        <time>2016-07-24T08:45:31Z</time>
      </trkpt>
      <trkpt lat="42.40408" lon="0.04645">
        <ele>782.2</ele>
        <time>2016-07-24T08:45:32Z</time>
      </trkpt>
      <trkpt lat="42.40412" lon="0.04645">
        <ele>782.1</ele>
        <time>2016-07-24T08:45:33Z</time>
      </trkpt>
      <trkpt lat="42.40416" lon="0.04645">
        <ele>782.1</ele>
        <time>2016-07-24T08:45:34Z</time>
      </trkpt>
      <trkpt lat="42.4042" lon="0.04645">
        <ele>782.2</ele>
        <time>2016-07-24T08:45:35Z</time>
      </trkpt>
      <trkpt lat="42.40425" lon="0.04644">
        <ele>782.5</ele>
        <time>2016-07-24T08:45:36Z</time>
      </trkpt>
      <trkpt lat="42.40429" lon="0.04643">
        <ele>782.9</ele>
        <time>2016-07-24T08:45:37Z</time>
      </trkpt>
      <trkpt lat="42.40433" lon="0.0464">
        <ele>783.6</ele>
        <time>2016-07-24T08:45:38Z</time>
      </trkpt>
      <trkpt lat="42.40437" lon="0.04637">
        <ele>784.5</ele>
        <time>2016-07-24T08:45:39Z</time>
      </trkpt>
      <trkpt lat="42.4044" lon="0.04632">
        <ele>785.6</ele>
        <time>2016-07-24T08:45:40Z</time>
      </trkpt>
      <trkpt lat="42.40443" lon="0.04629">
        <ele>786.7</ele>
        <time>2016-07-24T08:45:41Z</time>
      </trkpt>
      <trkpt lat="42.40447" lon="0.04625">
        <ele>787.7</ele>
        <time>2016-07-24T08:45:42Z</time>
      </trkpt>
      <trkpt lat="42.40451" lon="0.04623">
        <ele>788.3</ele>
        <time>2016-07-24T08:45:43Z</time>
      </trkpt>
      <trkpt lat="42.40455" lon="0.04622">
        <ele>788.8</ele>
        <time>2016-07-24T08:45:44Z</time>
      </trkpt>
      <trkpt lat="42.40459" lon="0.04621">
        <ele>789.2</ele>
        <time>2016-07-24T08:45:45Z</time>
      </trkpt>
      <trkpt lat="42.40462" lon="0.04619">
        <ele>789.3</ele>
        <time>2016-07-24T08:45:46Z</time>
      </trkpt>
      <trkpt lat="42.40466" lon="0.04617">
        <ele>789.7</ele>
        <time>2016-07-24T08:45:47Z</time>
      </trkpt>
      <trkpt lat="42.40468" lon="0.04614">
        <ele>790.5</ele>
        <time>2016-07-24T08:45:48Z</time>
      </trkpt>
      <trkpt lat="42.4047" lon="0.04609">
        <ele>791.7</ele>
        <time>2016-07-24T08:45:49Z</time>
      </trkpt>
      <trkpt lat="42.4047" lon="0.04603">
        <ele>793.1</ele>
        <time>2016-07-24T08:45:50Z</time>
      </trkpt>
      <trkpt lat="42.4047" lon="0.04598">
        <ele>794.5</ele>
        <time>2016-07-24T08:45:51Z</time>
      </trkpt>
      <trkpt lat="42.4047" lon="0.04593">
        <ele>795.9</ele>
        <time>2016-07-24T08:45:52Z</time>
      </trkpt>
      <trkpt lat="42.40471" lon="0.04588">
        <ele>797.1</ele>
        <time>2016-07-24T08:45:53Z</time>
      </trkpt>
      <trkpt lat="42.40472" lon="0.04583">
        <ele>798.3</ele>
        <time>2016-07-24T08:45:54Z</time>
      </trkpt>
      <trkpt lat="42.40473" lon="0.04579">
        <ele>799.3</ele>
        <time>2016-07-24T08:45:55Z</time>
      </trkpt>
      <trkpt lat="42.40476" lon="0.04575">
        <ele>800.2</ele>
        <time>2016-07-24T08:45:56Z</time>
      </trkpt>
      <trkpt lat="42.40479" lon="0.04573">
        <ele>800.7</ele>
        <time>2016-07-24T08:45:57Z</time>
      </trkpt>
      <trkpt lat="42.40483" lon="0.04572">
        <ele>800.8</ele>
        <time>2016-07-24T08:45:58Z</time>
      </trkpt>
      <trkpt lat="42.40486" lon="0.04572">
        <ele>800.6</ele>
        <time>2016-07-24T08:45:59Z</time>
      </trkpt>
      <trkpt lat="42.4049" lon="0.04573">
        <ele>800</ele>
        <time>2016-07-24T08:46:00Z</time>
      </trkpt>
      <trkpt lat="42.40494" lon="0.04575">
        <ele>799.2</ele>
        <time>2016-07-24T08:46:01Z</time>
      </trkpt>
      <trkpt lat="42.40497" lon="0.04579">
        <ele>798.2</ele>
        <time>2016-07-24T08:46:02Z</time>
      </trkpt>
      <trkpt lat="42.40499" lon="0.04582">
        <ele>797.1</ele>
        <time>2016-07-24T08:46:03Z</time>
      </trkpt>
      <trkpt lat="42.40502" lon="0.04586">
        <ele>796</ele>
        <time>2016-07-24T08:46:04Z</time>
      </trkpt>
      <trkpt lat="42.40505" lon="0.0459">
        <ele>794.8</ele>
        <time>2016-07-24T08:46:05Z</time>
      </trkpt>
      <trkpt lat="42.40507" lon="0.04594">
        <ele>793.5</ele>
        <time>2016-07-24T08:46:06Z</time>
      </trkpt>
      <trkpt lat="42.40509" lon="0.04599">
        <ele>792.2</ele>
        <time>2016-07-24T08:46:07Z</time>
      </trkpt>
      <trkpt lat="42.4051" lon="0.04605">
        <ele>790.7</ele>
        <time>2016-07-24T08:46:08Z</time>
      </trkpt>
      <trkpt lat="42.4051" lon="0.04611">
        <ele>789.1</ele>
        <time>2016-07-24T08:46:09Z</time>
      </trkpt>
      <trkpt lat="42.40509" lon="0.04617">
        <ele>787.5</ele>
        <time>2016-07-24T08:46:10Z</time>
      </trkpt>
      <trkpt lat="42.40508" lon="0.04624">
        <ele>786</ele>
        <time>2016-07-24T08:46:11Z</time>
      </trkpt>
      <trkpt lat="42.40508" lon="0.04629">
        <ele>784.7</ele>
        <time>2016-07-24T08:46:12Z</time>
      </trkpt>
      <trkpt lat="42.40508" lon="0.04635">
        <ele>783.4</ele>
        <time>2016-07-24T08:46:13Z</time>
      </trkpt>
      <trkpt lat="42.40509" lon="0.0464">
        <ele>782.3</ele>
        <time>2016-07-24T08:46:14Z</time>
      </trkpt>
      <trkpt lat="42.40509" lon="0.04643">
        <ele>781.4</ele>
        <time>2016-07-24T08:46:15Z</time>
      </trkpt>
      <trkpt lat="42.4051" lon="0.04647">
        <ele>780.6</ele>
        <time>2016-07-24T08:46:16Z</time>
      </trkpt>
      <trkpt lat="42.40513" lon="0.04652">
        <ele>779.5</ele>
        <time>2016-07-24T08:46:18Z</time>
      </trkpt>
      <trkpt lat="42.40518" lon="0.04654">
        <ele>778.9</ele>
        <time>2016-07-24T08:46:20Z</time>
      </trkpt>
      <trkpt lat="42.40521" lon="0.04655">
        <ele>778.7</ele>
        <time>2016-07-24T08:46:21Z</time>
      </trkpt>
      <trkpt lat="42.40524" lon="0.04656">
        <ele>778.4</ele>
        <time>2016-07-24T08:46:22Z</time>
      </trkpt>
      <trkpt lat="42.40528" lon="0.04659">
        <ele>777.7</ele>
        <time>2016-07-24T08:46:24Z</time>
      </trkpt>
      <trkpt lat="42.40532" lon="0.04661">
        <ele>777.1</ele>
        <time>2016-07-24T08:46:26Z</time>
      </trkpt>
      <trkpt lat="42.40537" lon="0.04663">
        <ele>776.8</ele>
        <time>2016-07-24T08:46:28Z</time>
      </trkpt>
      <trkpt lat="42.40542" lon="0.04663">
        <ele>776.7</ele>
        <time>2016-07-24T08:46:30Z</time>
      </trkpt>
      <trkpt lat="42.40547" lon="0.04662">
        <ele>777.6</ele>
        <time>2016-07-24T08:46:32Z</time>
      </trkpt>
      <trkpt lat="42.40551" lon="0.04659">
        <ele>778.7</ele>
        <time>2016-07-24T08:46:34Z</time>
      </trkpt>
      <trkpt lat="42.40556" lon="0.04656">
        <ele>779.9</ele>
        <time>2016-07-24T08:46:36Z</time>
      </trkpt>
      <trkpt lat="42.40561" lon="0.04653">
        <ele>781.1</ele>
        <time>2016-07-24T08:46:38Z</time>
      </trkpt>
      <trkpt lat="42.40565" lon="0.0465">
        <ele>782.2</ele>
        <time>2016-07-24T08:46:40Z</time>
      </trkpt>
      <trkpt lat="42.4057" lon="0.04648">
        <ele>783.2</ele>
        <time>2016-07-24T08:46:42Z</time>
      </trkpt>
      <trkpt lat="42.40574" lon="0.04646">
        <ele>784.2</ele>
        <time>2016-07-24T08:46:44Z</time>
      </trkpt>
      <trkpt lat="42.40579" lon="0.04643">
        <ele>785.3</ele>
        <time>2016-07-24T08:46:46Z</time>
      </trkpt>
      <trkpt lat="42.40584" lon="0.0464">
        <ele>786.6</ele>
        <time>2016-07-24T08:46:48Z</time>
      </trkpt>
      <trkpt lat="42.40586" lon="0.04638">
        <ele>787.3</ele>
        <time>2016-07-24T08:46:49Z</time>
      </trkpt>
      <trkpt lat="42.40591" lon="0.04634">
        <ele>788.6</ele>
        <time>2016-07-24T08:46:51Z</time>
      </trkpt>
      <trkpt lat="42.40593" lon="0.04633">
        <ele>789.3</ele>
        <time>2016-07-24T08:46:52Z</time>
      </trkpt>
      <trkpt lat="42.40598" lon="0.04629">
        <ele>790.6</ele>
        <time>2016-07-24T08:46:54Z</time>
      </trkpt>
      <trkpt lat="42.40602" lon="0.04626">
        <ele>791.8</ele>
        <time>2016-07-24T08:46:56Z</time>
      </trkpt>
      <trkpt lat="42.40607" lon="0.04624">
        <ele>792.9</ele>
        <time>2016-07-24T08:46:58Z</time>
      </trkpt>
      <trkpt lat="42.40612" lon="0.04621">
        <ele>794</ele>
        <time>2016-07-24T08:47:00Z</time>
      </trkpt>
      <trkpt lat="42.40617" lon="0.0462">
        <ele>795</ele>
        <time>2016-07-24T08:47:02Z</time>
      </trkpt>
      <trkpt lat="42.40622" lon="0.04618">
        <ele>795.8</ele>
        <time>2016-07-24T08:47:04Z</time>
      </trkpt>
      <trkpt lat="42.40627" lon="0.04618">
        <ele>796.4</ele>
        <time>2016-07-24T08:47:06Z</time>
      </trkpt>
      <trkpt lat="42.40632" lon="0.04619">
        <ele>796.7</ele>
        <time>2016-07-24T08:47:08Z</time>
      </trkpt>
      <trkpt lat="42.40636" lon="0.04619">
        <ele>797.1</ele>
        <time>2016-07-24T08:47:10Z</time>
      </trkpt>
      <trkpt lat="42.4064" lon="0.04619">
        <ele>797.5</ele>
        <time>2016-07-24T08:47:12Z</time>
      </trkpt>
      <trkpt lat="42.40645" lon="0.04619">
        <ele>797.8</ele>
        <time>2016-07-24T08:47:14Z</time>
      </trkpt>
      <trkpt lat="42.40649" lon="0.04619">
        <ele>798.1</ele>
        <time>2016-07-24T08:47:16Z</time>
      </trkpt>
      <trkpt lat="42.40653" lon="0.0462">
        <ele>798.3</ele>
        <time>2016-07-24T08:47:18Z</time>
      </trkpt>
      <trkpt lat="42.40657" lon="0.04622">
        <ele>798.3</ele>
        <time>2016-07-24T08:47:20Z</time>
      </trkpt>
      <trkpt lat="42.4066" lon="0.04623">
        <ele>798.3</ele>
        <time>2016-07-24T08:47:22Z</time>
      </trkpt>
      <trkpt lat="42.40664" lon="0.04626">
        <ele>798.1</ele>
        <time>2016-07-24T08:47:24Z</time>
      </trkpt>
      <trkpt lat="42.40668" lon="0.04629">
        <ele>797.7</ele>
        <time>2016-07-24T08:47:26Z</time>
      </trkpt>
      <trkpt lat="42.40671" lon="0.04632">
        <ele>797.3</ele>
        <time>2016-07-24T08:47:28Z</time>
      </trkpt>
      <trkpt lat="42.40674" lon="0.04634">
        <ele>797.2</ele>
        <time>2016-07-24T08:47:30Z</time>
      </trkpt>
      <trkpt lat="42.40678" lon="0.04634">
        <ele>797.3</ele>
        <time>2016-07-24T08:47:32Z</time>
      </trkpt>
      <trkpt lat="42.40682" lon="0.04634">
        <ele>797.8</ele>
        <time>2016-07-24T08:47:34Z</time>
      </trkpt>
      <trkpt lat="42.40686" lon="0.04632">
        <ele>798.5</ele>
        <time>2016-07-24T08:47:36Z</time>
      </trkpt>
      <trkpt lat="42.40689" lon="0.04629">
        <ele>799.5</ele>
        <time>2016-07-24T08:47:38Z</time>
      </trkpt>
      <trkpt lat="42.40691" lon="0.04624">
        <ele>800.7</ele>
        <time>2016-07-24T08:47:40Z</time>
      </trkpt>
      <trkpt lat="42.40692" lon="0.0462">
        <ele>801.8</ele>
        <time>2016-07-24T08:47:42Z</time>
      </trkpt>
      <trkpt lat="42.40692" lon="0.04614">
        <ele>802.9</ele>
        <time>2016-07-24T08:47:44Z</time>
      </trkpt>
      <trkpt lat="42.4069" lon="0.0461">
        <ele>803.8</ele>
        <time>2016-07-24T08:47:46Z</time>
      </trkpt>
      <trkpt lat="42.40687" lon="0.04606">
        <ele>804.4</ele>
        <time>2016-07-24T08:47:48Z</time>
      </trkpt>
      <trkpt lat="42.40684" lon="0.04603">
        <ele>804.7</ele>
        <time>2016-07-24T08:47:50Z</time>
      </trkpt>
      <trkpt lat="42.4068" lon="0.04601">
        <ele>804.8</ele>
        <time>2016-07-24T08:47:52Z</time>
      </trkpt>
      <trkpt lat="42.40676" lon="0.04598">
        <ele>804.9</ele>
        <time>2016-07-24T08:47:54Z</time>
      </trkpt>
      <trkpt lat="42.40673" lon="0.04596">
        <ele>804.9</ele>
        <time>2016-07-24T08:47:56Z</time>
      </trkpt>
      <trkpt lat="42.40669" lon="0.04594">
        <ele>805.1</ele>
        <time>2016-07-24T08:47:58Z</time>
      </trkpt>
      <trkpt lat="42.40666" lon="0.04591">
        <ele>805.4</ele>
        <time>2016-07-24T08:48:00Z</time>
      </trkpt>
      <trkpt lat="42.40663" lon="0.04588">
        <ele>805.6</ele>
        <time>2016-07-24T08:48:02Z</time>
      </trkpt>
      <trkpt lat="42.40659" lon="0.04585">
        <ele>805.8</ele>
        <time>2016-07-24T08:48:04Z</time>
      </trkpt>
      <trkpt lat="42.40656" lon="0.04583">
        <ele>805.9</ele>
        <time>2016-07-24T08:48:06Z</time>
      </trkpt>
      <trkpt lat="42.40652" lon="0.04581">
        <ele>805.9</ele>
        <time>2016-07-24T08:48:08Z</time>
      </trkpt>
      <trkpt lat="42.40647" lon="0.04579">
        <ele>805.8</ele>
        <time>2016-07-24T08:48:10Z</time>
      </trkpt>
      <trkpt lat="42.40643" lon="0.04577">
        <ele>805.7</ele>
        <time>2016-07-24T08:48:12Z</time>
      </trkpt>
      <trkpt lat="42.40639" lon="0.04575">
        <ele>805.6</ele>
        <time>2016-07-24T08:48:14Z</time>
      </trkpt>
      <trkpt lat="42.40636" lon="0.04573">
        <ele>805.6</ele>
        <time>2016-07-24T08:48:16Z</time>
      </trkpt>
      <trkpt lat="42.40632" lon="0.04571">
        <ele>805.5</ele>
        <time>2016-07-24T08:48:18Z</time>
      </trkpt>
      <trkpt lat="42.40628" lon="0.04569">
        <ele>805.3</ele>
        <time>2016-07-24T08:48:20Z</time>
      </trkpt>
      <trkpt lat="42.40624" lon="0.04567">
        <ele>805.3</ele>
        <time>2016-07-24T08:48:22Z</time>
      </trkpt>
      <trkpt lat="42.40621" lon="0.04566">
        <ele>805.3</ele>
        <time>2016-07-24T08:48:24Z</time>
      </trkpt>
      <trkpt lat="42.40617" lon="0.04565">
        <ele>805.2</ele>
        <time>2016-07-24T08:48:26Z</time>
      </trkpt>
      <trkpt lat="42.40613" lon="0.04564">
        <ele>805.1</ele>
        <time>2016-07-24T08:48:28Z</time>
      </trkpt>
      <trkpt lat="42.40609" lon="0.04562">
        <ele>805.1</ele>
        <time>2016-07-24T08:48:30Z</time>
      </trkpt>
      <trkpt lat="42.40606" lon="0.0456">
        <ele>805.3</ele>
        <time>2016-07-24T08:48:32Z</time>
      </trkpt>
      <trkpt lat="42.40603" lon="0.04558">
        <ele>805.5</ele>
        <time>2016-07-24T08:48:34Z</time>
      </trkpt>
      <trkpt lat="42.406" lon="0.04556">
        <ele>805.7</ele>
        <time>2016-07-24T08:48:36Z</time>
      </trkpt>
      <trkpt lat="42.40597" lon="0.04554">
        <ele>805.9</ele>
        <time>2016-07-24T08:48:38Z</time>
      </trkpt>
      <trkpt lat="42.40595" lon="0.04551">
        <ele>806.2</ele>
        <time>2016-07-24T08:48:40Z</time>
      </trkpt>
      <trkpt lat="42.40592" lon="0.04548">
        <ele>806.7</ele>
        <time>2016-07-24T08:48:42Z</time>
      </trkpt>
      <trkpt lat="42.4059" lon="0.04545">
        <ele>807.3</ele>
        <time>2016-07-24T08:48:44Z</time>
      </trkpt>
      <trkpt lat="42.40588" lon="0.0454">
        <ele>808.1</ele>
        <time>2016-07-24T08:48:46Z</time>
      </trkpt>
      <trkpt lat="42.40586" lon="0.04536">
        <ele>808.9</ele>
        <time>2016-07-24T08:48:48Z</time>
      </trkpt>
      <trkpt lat="42.40585" lon="0.04532">
        <ele>809.8</ele>
        <time>2016-07-24T08:48:50Z</time>
      </trkpt>
      <trkpt lat="42.40583" lon="0.04528">
        <ele>810.6</ele>
        <time>2016-07-24T08:48:52Z</time>
      </trkpt>
      <trkpt lat="42.40582" lon="0.04524">
        <ele>811.4</ele>
        <time>2016-07-24T08:48:54Z</time>
      </trkpt>
      <trkpt lat="42.40581" lon="0.0452">
        <ele>812.2</ele>
        <time>2016-07-24T08:48:56Z</time>
      </trkpt>
      <trkpt lat="42.40579" lon="0.04517">
        <ele>813</ele>
        <time>2016-07-24T08:48:58Z</time>
      </trkpt>
      <trkpt lat="42.40577" lon="0.04514">
        <ele>813.6</ele>
        <time>2016-07-24T08:49:00Z</time>
      </trkpt>
      <trkpt lat="42.40574" lon="0.04511">
        <ele>814.1</ele>
        <time>2016-07-24T08:49:02Z</time>
      </trkpt>
      <trkpt lat="42.40571" lon="0.04508">
        <ele>814.6</ele>
        <time>2016-07-24T08:49:04Z</time>
      </trkpt>
      <trkpt lat="42.40568" lon="0.04506">
        <ele>815.1</ele>
        <time>2016-07-24T08:49:06Z</time>
      </trkpt>
      <trkpt lat="42.40566" lon="0.04503">
        <ele>815.7</ele>
        <time>2016-07-24T08:49:08Z</time>
      </trkpt>
      <trkpt lat="42.40563" lon="0.045">
        <ele>816.3</ele>
        <time>2016-07-24T08:49:10Z</time>
      </trkpt>
      <trkpt lat="42.4056" lon="0.04497">
        <ele>817</ele>
        <time>2016-07-24T08:49:12Z</time>
      </trkpt>
      <trkpt lat="42.40558" lon="0.04493">
        <ele>817.7</ele>
        <time>2016-07-24T08:49:14Z</time>
      </trkpt>
      <trkpt lat="42.40557" lon="0.04489">
        <ele>818.7</ele>
        <time>2016-07-24T08:49:16Z</time>
      </trkpt>
      <trkpt lat="42.40555" lon="0.04484">
        <ele>819.9</ele>
        <time>2016-07-24T08:49:18Z</time>
      </trkpt>
      <trkpt lat="42.40554" lon="0.04479">
        <ele>821</ele>
        <time>2016-07-24T08:49:20Z</time>
      </trkpt>
      <trkpt lat="42.40554" lon="0.04474">
        <ele>822.3</ele>
        <time>2016-07-24T08:49:22Z</time>
      </trkpt>
      <trkpt lat="42.40553" lon="0.04469">
        <ele>823.6</ele>
        <time>2016-07-24T08:49:24Z</time>
      </trkpt>
      <trkpt lat="42.40552" lon="0.04463">
        <ele>824.9</ele>
        <time>2016-07-24T08:49:26Z</time>
      </trkpt>
      <trkpt lat="42.4055" lon="0.04458">
        <ele>826.1</ele>
        <time>2016-07-24T08:49:28Z</time>
      </trkpt>
      <trkpt lat="42.40549" lon="0.04454">
        <ele>827.2</ele>
        <time>2016-07-24T08:49:30Z</time>
      </trkpt>
      <trkpt lat="42.40548" lon="0.0445">
        <ele>828.2</ele>
        <time>2016-07-24T08:49:32Z</time>
      </trkpt>
      <trkpt lat="42.40547" lon="0.04446">
        <ele>829.2</ele>
        <time>2016-07-24T08:49:34Z</time>
      </trkpt>
      <trkpt lat="42.40546" lon="0.04442">
        <ele>830.2</ele>
        <time>2016-07-24T08:49:36Z</time>
      </trkpt>
      <trkpt lat="42.40544" lon="0.04438">
        <ele>831.2</ele>
        <time>2016-07-24T08:49:38Z</time>
      </trkpt>
      <trkpt lat="42.40543" lon="0.04434">
        <ele>832.2</ele>
        <time>2016-07-24T08:49:40Z</time>
      </trkpt>
      <trkpt lat="42.40542" lon="0.0443">
        <ele>833.2</ele>
        <time>2016-07-24T08:49:42Z</time>
      </trkpt>
      <trkpt lat="42.40541" lon="0.04426">
        <ele>834.4</ele>
        <time>2016-07-24T08:49:44Z</time>
      </trkpt>
      <trkpt lat="42.4054" lon="0.04422">
        <ele>835.5</ele>
        <time>2016-07-24T08:49:46Z</time>
      </trkpt>
      <trkpt lat="42.40539" lon="0.04418">
        <ele>836.7</ele>
        <time>2016-07-24T08:49:48Z</time>
      </trkpt>
      <trkpt lat="42.40538" lon="0.04414">
        <ele>837.7</ele>
        <time>2016-07-24T08:49:50Z</time>
      </trkpt>
      <trkpt lat="42.40538" lon="0.0441">
        <ele>838.7</ele>
        <time>2016-07-24T08:49:52Z</time>
      </trkpt>
      <trkpt lat="42.40539" lon="0.04406">
        <ele>839.8</ele>
        <time>2016-07-24T08:49:54Z</time>
      </trkpt>
      <trkpt lat="42.40539" lon="0.04401">
        <ele>840.8</ele>
        <time>2016-07-24T08:49:56Z</time>
      </trkpt>
      <trkpt lat="42.40541" lon="0.04397">
        <ele>841.6</ele>
        <time>2016-07-24T08:49:58Z</time>
      </trkpt>
      <trkpt lat="42.40543" lon="0.04394">
        <ele>842.3</ele>
        <time>2016-07-24T08:50:00Z</time>
      </trkpt>
      <trkpt lat="42.40545" lon="0.0439">
        <ele>843.2</ele>
        <time>2016-07-24T08:50:02Z</time>
      </trkpt>
      <trkpt lat="42.40547" lon="0.04388">
        <ele>843.8</ele>
        <time>2016-07-24T08:50:04Z</time>
      </trkpt>
      <trkpt lat="42.40551" lon="0.04386">
        <ele>844.2</ele>
        <time>2016-07-24T08:50:06Z</time>
      </trkpt>
      <trkpt lat="42.40554" lon="0.04385">
        <ele>844.3</ele>
        <time>2016-07-24T08:50:08Z</time>
      </trkpt>
      <trkpt lat="42.40557" lon="0.04386">
        <ele>844.2</ele>
        <time>2016-07-24T08:50:10Z</time>
      </trkpt>
      <trkpt lat="42.4056" lon="0.04386">
        <ele>844</ele>
        <time>2016-07-24T08:50:12Z</time>
      </trkpt>
      <trkpt lat="42.40564" lon="0.04387">
        <ele>843.8</ele>
        <time>2016-07-24T08:50:14Z</time>
      </trkpt>
      <trkpt lat="42.40567" lon="0.04388">
        <ele>843.6</ele>
        <time>2016-07-24T08:50:16Z</time>
      </trkpt>
      <trkpt lat="42.4057" lon="0.04389">
        <ele>843.3</ele>
        <time>2016-07-24T08:50:18Z</time>
      </trkpt>
      <trkpt lat="42.40572" lon="0.04391">
        <ele>842.8</ele>
        <time>2016-07-24T08:50:20Z</time>
      </trkpt>
      <trkpt lat="42.40575" lon="0.04393">
        <ele>842.2</ele>
        <time>2016-07-24T08:50:22Z</time>
      </trkpt>
      <trkpt lat="42.40577" lon="0.04396">
        <ele>841.6</ele>
        <time>2016-07-24T08:50:24Z</time>
      </trkpt>
      <trkpt lat="42.4058" lon="0.04398">
        <ele>840.9</ele>
        <time>2016-07-24T08:50:26Z</time>
      </trkpt>
      <trkpt lat="42.40582" lon="0.04402">
        <ele>840.1</ele>
        <time>2016-07-24T08:50:28Z</time>
      </trkpt>
      <trkpt lat="42.40584" lon="0.04405">
        <ele>839.3</ele>
        <time>2016-07-24T08:50:30Z</time>
      </trkpt>
      <trkpt lat="42.40586" lon="0.04408">
        <ele>838.7</ele>
        <time>2016-07-24T08:50:32Z</time>
      </trkpt>
      <trkpt lat="42.40589" lon="0.04409">
        <ele>838.2</ele>
        <time>2016-07-24T08:50:34Z</time>
      </trkpt>
      <trkpt lat="42.40592" lon="0.0441">
        <ele>838</ele>
        <time>2016-07-24T08:50:36Z</time>
      </trkpt>
      <trkpt lat="42.40595" lon="0.0441">
        <ele>838</ele>
        <time>2016-07-24T08:50:38Z</time>
      </trkpt>
      <trkpt lat="42.40598" lon="0.04409">
        <ele>838.3</ele>
        <time>2016-07-24T08:50:40Z</time>
      </trkpt>
      <trkpt lat="42.40602" lon="0.04408">
        <ele>838.7</ele>
        <time>2016-07-24T08:50:42Z</time>
      </trkpt>
      <trkpt lat="42.40604" lon="0.04405">
        <ele>839.2</ele>
        <time>2016-07-24T08:50:44Z</time>
      </trkpt>
      <trkpt lat="42.40607" lon="0.04403">
        <ele>839.8</ele>
        <time>2016-07-24T08:50:46Z</time>
      </trkpt>
      <trkpt lat="42.4061" lon="0.044">
        <ele>840.3</ele>
        <time>2016-07-24T08:50:48Z</time>
      </trkpt>
      <trkpt lat="42.40612" lon="0.04398">
        <ele>840.8</ele>
        <time>2016-07-24T08:50:50Z</time>
      </trkpt>
      <trkpt lat="42.40615" lon="0.04396">
        <ele>841.2</ele>
        <time>2016-07-24T08:50:52Z</time>
      </trkpt>
      <trkpt lat="42.40618" lon="0.04395">
        <ele>841.6</ele>
        <time>2016-07-24T08:50:54Z</time>
      </trkpt>
      <trkpt lat="42.40621" lon="0.04394">
        <ele>841.7</ele>
        <time>2016-07-24T08:50:56Z</time>
      </trkpt>
      <trkpt lat="42.40625" lon="0.04394">
        <ele>841.6</ele>
        <time>2016-07-24T08:50:59Z</time>
      </trkpt>
      <trkpt lat="42.40628" lon="0.04394">
        <ele>842</ele>
        <time>2016-07-24T08:51:02Z</time>
      </trkpt>
      <trkpt lat="42.40631" lon="0.04395">
        <ele>842.4</ele>
        <time>2016-07-24T08:51:04Z</time>
      </trkpt>
      <trkpt lat="42.40635" lon="0.04395">
        <ele>842.8</ele>
        <time>2016-07-24T08:51:07Z</time>
      </trkpt>
      <trkpt lat="42.40638" lon="0.04396">
        <ele>842.9</ele>
        <time>2016-07-24T08:51:09Z</time>
      </trkpt>
      <trkpt lat="42.4064" lon="0.04398">
        <ele>842.9</ele>
        <time>2016-07-24T08:51:11Z</time>
      </trkpt>
      <trkpt lat="42.40643" lon="0.044">
        <ele>842.9</ele>
        <time>2016-07-24T08:51:13Z</time>
      </trkpt>
      <trkpt lat="42.40646" lon="0.044">
        <ele>843.2</ele>
        <time>2016-07-24T08:51:15Z</time>
      </trkpt>
      <trkpt lat="42.40648" lon="0.04399">
        <ele>843.7</ele>
        <time>2016-07-24T08:51:17Z</time>
      </trkpt>
      <trkpt lat="42.40651" lon="0.04399">
        <ele>844.3</ele>
        <time>2016-07-24T08:51:19Z</time>
      </trkpt>
      <trkpt lat="42.40654" lon="0.04398">
        <ele>844.8</ele>
        <time>2016-07-24T08:51:21Z</time>
      </trkpt>
      <trkpt lat="42.40657" lon="0.04397">
        <ele>845.5</ele>
        <time>2016-07-24T08:51:23Z</time>
      </trkpt>
      <trkpt lat="42.4066" lon="0.04395">
        <ele>846.3</ele>
        <time>2016-07-24T08:51:25Z</time>
      </trkpt>
      <trkpt lat="42.40662" lon="0.04393">
        <ele>847.2</ele>
        <time>2016-07-24T08:51:27Z</time>
      </trkpt>
      <trkpt lat="42.40665" lon="0.0439">
        <ele>848.2</ele>
        <time>2016-07-24T08:51:29Z</time>
      </trkpt>
      <trkpt lat="42.40667" lon="0.04388">
        <ele>849.2</ele>
        <time>2016-07-24T08:51:31Z</time>
      </trkpt>
      <trkpt lat="42.4067" lon="0.04386">
        <ele>850</ele>
        <time>2016-07-24T08:51:33Z</time>
      </trkpt>
      <trkpt lat="42.40673" lon="0.04384">
        <ele>850.7</ele>
        <time>2016-07-24T08:51:35Z</time>
      </trkpt>
      <trkpt lat="42.40676" lon="0.04383">
        <ele>851.3</ele>
        <time>2016-07-24T08:51:37Z</time>
      </trkpt>
      <trkpt lat="42.40679" lon="0.04383">
        <ele>851.9</ele>
        <time>2016-07-24T08:51:39Z</time>
      </trkpt>
      <trkpt lat="42.40682" lon="0.04382">
        <ele>852.5</ele>
        <time>2016-07-24T08:51:41Z</time>
      </trkpt>
      <trkpt lat="42.40685" lon="0.04382">
        <ele>852.9</ele>
        <time>2016-07-24T08:51:43Z</time>
      </trkpt>
      <trkpt lat="42.40688" lon="0.04382">
        <ele>853.4</ele>
        <time>2016-07-24T08:51:45Z</time>
      </trkpt>
      <trkpt lat="42.40692" lon="0.04382">
        <ele>854</ele>
        <time>2016-07-24T08:51:47Z</time>
      </trkpt>
      <trkpt lat="42.40694" lon="0.04377">
        <ele>855.4</ele>
        <time>2016-07-24T08:51:50Z</time>
      </trkpt>
      <trkpt lat="42.40692" lon="0.04373">
        <ele>856</ele>
        <time>2016-07-24T08:51:52Z</time>
      </trkpt>
      <trkpt lat="42.40689" lon="0.0437">
        <ele>856.2</ele>
        <time>2016-07-24T08:51:54Z</time>
      </trkpt>
      <trkpt lat="42.40686" lon="0.04367">
        <ele>856.4</ele>
        <time>2016-07-24T08:51:56Z</time>
      </trkpt>
      <trkpt lat="42.40683" lon="0.04365">
        <ele>856.4</ele>
        <time>2016-07-24T08:51:58Z</time>
      </trkpt>
      <trkpt lat="42.40681" lon="0.04364">
        <ele>856.4</ele>
        <time>2016-07-24T08:52:00Z</time>
      </trkpt>
      <trkpt lat="42.40678" lon="0.04361">
        <ele>856.7</ele>
        <time>2016-07-24T08:52:02Z</time>
      </trkpt>
      <trkpt lat="42.40676" lon="0.04358">
        <ele>857</ele>
        <time>2016-07-24T08:52:04Z</time>
      </trkpt>
      <trkpt lat="42.40673" lon="0.04357">
        <ele>856.9</ele>
        <time>2016-07-24T08:52:06Z</time>
      </trkpt>
      <trkpt lat="42.4067" lon="0.04356">
        <ele>856.8</ele>
        <time>2016-07-24T08:52:08Z</time>
      </trkpt>
      <trkpt lat="42.40667" lon="0.04355">
        <ele>856.7</ele>
        <time>2016-07-24T08:52:10Z</time>
      </trkpt>
      <trkpt lat="42.40665" lon="0.04355">
        <ele>856.5</ele>
        <time>2016-07-24T08:52:12Z</time>
      </trkpt>
      <trkpt lat="42.40661" lon="0.04354">
        <ele>856.3</ele>
        <time>2016-07-24T08:52:15Z</time>
      </trkpt>
      <trkpt lat="42.40658" lon="0.04352">
        <ele>856.3</ele>
        <time>2016-07-24T08:52:17Z</time>
      </trkpt>
      <trkpt lat="42.40655" lon="0.0435">
        <ele>856.5</ele>
        <time>2016-07-24T08:52:19Z</time>
      </trkpt>
      <trkpt lat="42.40652" lon="0.04347">
        <ele>856.9</ele>
        <time>2016-07-24T08:52:21Z</time>
      </trkpt>
      <trkpt lat="42.40648" lon="0.04344">
        <ele>857.3</ele>
        <time>2016-07-24T08:52:23Z</time>
      </trkpt>
      <trkpt lat="42.40644" lon="0.04341">
        <ele>857.8</ele>
        <time>2016-07-24T08:52:25Z</time>
      </trkpt>
      <trkpt lat="42.4064" lon="0.04338">
        <ele>858</ele>
        <time>2016-07-24T08:52:27Z</time>
      </trkpt>
      <trkpt lat="42.40636" lon="0.04336">
        <ele>858.4</ele>
        <time>2016-07-24T08:52:29Z</time>
      </trkpt>
      <trkpt lat="42.40633" lon="0.04333">
        <ele>858.8</ele>
        <time>2016-07-24T08:52:31Z</time>
      </trkpt>
      <trkpt lat="42.40629" lon="0.04331">
        <ele>859.2</ele>
        <time>2016-07-24T08:52:33Z</time>
      </trkpt>
      <trkpt lat="42.40625" lon="0.04328">
        <ele>859.5</ele>
        <time>2016-07-24T08:52:35Z</time>
      </trkpt>
      <trkpt lat="42.40621" lon="0.04326">
        <ele>860</ele>
        <time>2016-07-24T08:52:37Z</time>
      </trkpt>
      <trkpt lat="42.40618" lon="0.04323">
        <ele>860.6</ele>
        <time>2016-07-24T08:52:39Z</time>
      </trkpt>
      <trkpt lat="42.40613" lon="0.04321">
        <ele>861.1</ele>
        <time>2016-07-24T08:52:41Z</time>
      </trkpt>
      <trkpt lat="42.40609" lon="0.04318">
        <ele>861.6</ele>
        <time>2016-07-24T08:52:43Z</time>
      </trkpt>
      <trkpt lat="42.40604" lon="0.04314">
        <ele>862.2</ele>
        <time>2016-07-24T08:52:45Z</time>
      </trkpt>
      <trkpt lat="42.40599" lon="0.04311">
        <ele>862.9</ele>
        <time>2016-07-24T08:52:47Z</time>
      </trkpt>
      <trkpt lat="42.40597" lon="0.04309">
        <ele>863.2</ele>
        <time>2016-07-24T08:52:48Z</time>
      </trkpt>
      <trkpt lat="42.40594" lon="0.04307">
        <ele>863.6</ele>
        <time>2016-07-24T08:52:49Z</time>
      </trkpt>
      <trkpt lat="42.40592" lon="0.04305">
        <ele>863.9</ele>
        <time>2016-07-24T08:52:50Z</time>
      </trkpt>
      <trkpt lat="42.40588" lon="0.04301">
        <ele>864.5</ele>
        <time>2016-07-24T08:52:52Z</time>
      </trkpt>
      <trkpt lat="42.40584" lon="0.04298">
        <ele>865.1</ele>
        <time>2016-07-24T08:52:54Z</time>
      </trkpt>
      <trkpt lat="42.4058" lon="0.04294">
        <ele>865.6</ele>
        <time>2016-07-24T08:52:56Z</time>
      </trkpt>
      <trkpt lat="42.40576" lon="0.04291">
        <ele>866.1</ele>
        <time>2016-07-24T08:52:58Z</time>
      </trkpt>
      <trkpt lat="42.40572" lon="0.04287">
        <ele>866.3</ele>
        <time>2016-07-24T08:53:00Z</time>
      </trkpt>
      <trkpt lat="42.40569" lon="0.04284">
        <ele>866.6</ele>
        <time>2016-07-24T08:53:02Z</time>
      </trkpt>
      <trkpt lat="42.40565" lon="0.04281">
        <ele>866.9</ele>
        <time>2016-07-24T08:53:04Z</time>
      </trkpt>
      <trkpt lat="42.40561" lon="0.04278">
        <ele>867.1</ele>
        <time>2016-07-24T08:53:06Z</time>
      </trkpt>
      <trkpt lat="42.40557" lon="0.04276">
        <ele>867.3</ele>
        <time>2016-07-24T08:53:08Z</time>
      </trkpt>
      <trkpt lat="42.40551" lon="0.04273">
        <ele>867.4</ele>
        <time>2016-07-24T08:53:10Z</time>
      </trkpt>
      <trkpt lat="42.40548" lon="0.04272">
        <ele>867.3</ele>
        <time>2016-07-24T08:53:11Z</time>
      </trkpt>
      <trkpt lat="42.40544" lon="0.04271">
        <ele>867.3</ele>
        <time>2016-07-24T08:53:12Z</time>
      </trkpt>
      <trkpt lat="42.4054" lon="0.04271">
        <ele>867.4</ele>
        <time>2016-07-24T08:53:13Z</time>
      </trkpt>
      <trkpt lat="42.40536" lon="0.0427">
        <ele>867.8</ele>
        <time>2016-07-24T08:53:14Z</time>
      </trkpt>
      <trkpt lat="42.40532" lon="0.0427">
        <ele>868.2</ele>
        <time>2016-07-24T08:53:15Z</time>
      </trkpt>
      <trkpt lat="42.40528" lon="0.04269">
        <ele>868.6</ele>
        <time>2016-07-24T08:53:16Z</time>
      </trkpt>
      <trkpt lat="42.40525" lon="0.04269">
        <ele>869</ele>
        <time>2016-07-24T08:53:17Z</time>
      </trkpt>
      <trkpt lat="42.40521" lon="0.04268">
        <ele>869.3</ele>
        <time>2016-07-24T08:53:18Z</time>
      </trkpt>
      <trkpt lat="42.40518" lon="0.04268">
        <ele>869.6</ele>
        <time>2016-07-24T08:53:19Z</time>
      </trkpt>
      <trkpt lat="42.40515" lon="0.04267">
        <ele>869.9</ele>
        <time>2016-07-24T08:53:20Z</time>
      </trkpt>
      <trkpt lat="42.4051" lon="0.04267">
        <ele>870.5</ele>
        <time>2016-07-24T08:53:22Z</time>
      </trkpt>
      <trkpt lat="42.40505" lon="0.04267">
        <ele>870.9</ele>
        <time>2016-07-24T08:53:24Z</time>
      </trkpt>
      <trkpt lat="42.405" lon="0.04265">
        <ele>871.5</ele>
        <time>2016-07-24T08:53:26Z</time>
      </trkpt>
      <trkpt lat="42.40495" lon="0.04261">
        <ele>872.4</ele>
        <time>2016-07-24T08:53:28Z</time>
      </trkpt>
      <trkpt lat="42.40493" lon="0.04259">
        <ele>872.9</ele>
        <time>2016-07-24T08:53:29Z</time>
      </trkpt>
      <trkpt lat="42.40491" lon="0.04257">
        <ele>873.4</ele>
        <time>2016-07-24T08:53:30Z</time>
      </trkpt>
      <trkpt lat="42.40488" lon="0.04255">
        <ele>874</ele>
        <time>2016-07-24T08:53:31Z</time>
      </trkpt>
      <trkpt lat="42.40486" lon="0.04253">
        <ele>874.5</ele>
        <time>2016-07-24T08:53:32Z</time>
      </trkpt>
      <trkpt lat="42.40483" lon="0.04251">
        <ele>874.9</ele>
        <time>2016-07-24T08:53:33Z</time>
      </trkpt>
      <trkpt lat="42.4048" lon="0.04249">
        <ele>875.4</ele>
        <time>2016-07-24T08:53:34Z</time>
      </trkpt>
      <trkpt lat="42.40477" lon="0.04248">
        <ele>875.8</ele>
        <time>2016-07-24T08:53:35Z</time>
      </trkpt>
      <trkpt lat="42.40474" lon="0.04246">
        <ele>876.1</ele>
        <time>2016-07-24T08:53:36Z</time>
      </trkpt>
      <trkpt lat="42.40471" lon="0.04245">
        <ele>876.4</ele>
        <time>2016-07-24T08:53:37Z</time>
      </trkpt>
      <trkpt lat="42.40469" lon="0.04244">
        <ele>876.7</ele>
        <time>2016-07-24T08:53:38Z</time>
      </trkpt>
      <trkpt lat="42.40463" lon="0.04243">
        <ele>877.2</ele>
        <time>2016-07-24T08:53:40Z</time>
      </trkpt>
      <trkpt lat="42.4046" lon="0.04243">
        <ele>877.3</ele>
        <time>2016-07-24T08:53:41Z</time>
      </trkpt>
      <trkpt lat="42.40457" lon="0.04245">
        <ele>877.3</ele>
        <time>2016-07-24T08:53:42Z</time>
      </trkpt>
      <trkpt lat="42.40454" lon="0.04247">
        <ele>877.4</ele>
        <time>2016-07-24T08:53:43Z</time>
      </trkpt>
      <trkpt lat="42.40452" lon="0.0425">
        <ele>877.2</ele>
        <time>2016-07-24T08:53:44Z</time>
      </trkpt>
      <trkpt lat="42.4045" lon="0.04254">
        <ele>876.9</ele>
        <time>2016-07-24T08:53:45Z</time>
      </trkpt>
      <trkpt lat="42.40449" lon="0.04259">
        <ele>876.3</ele>
        <time>2016-07-24T08:53:46Z</time>
      </trkpt>
      <trkpt lat="42.40449" lon="0.04263">
        <ele>875.8</ele>
        <time>2016-07-24T08:53:47Z</time>
      </trkpt>
      <trkpt lat="42.40449" lon="0.04267">
        <ele>875.3</ele>
        <time>2016-07-24T08:53:48Z</time>
      </trkpt>
      <trkpt lat="42.40448" lon="0.04271">
        <ele>874.8</ele>
        <time>2016-07-24T08:53:49Z</time>
      </trkpt>
      <trkpt lat="42.40447" lon="0.04275">
        <ele>874.3</ele>
        <time>2016-07-24T08:53:50Z</time>
      </trkpt>
      <trkpt lat="42.40446" lon="0.0428">
        <ele>873.8</ele>
        <time>2016-07-24T08:53:51Z</time>
      </trkpt>
      <trkpt lat="42.40445" lon="0.04284">
        <ele>873.4</ele>
        <time>2016-07-24T08:53:52Z</time>
      </trkpt>
      <trkpt lat="42.40444" lon="0.04288">
        <ele>872.9</ele>
        <time>2016-07-24T08:53:53Z</time>
      </trkpt>
      <trkpt lat="42.40442" lon="0.04293">
        <ele>872.4</ele>
        <time>2016-07-24T08:53:54Z</time>
      </trkpt>
      <trkpt lat="42.40441" lon="0.04297">
        <ele>871.9</ele>
        <time>2016-07-24T08:53:55Z</time>
      </trkpt>
      <trkpt lat="42.4044" lon="0.04301">
        <ele>871.3</ele>
        <time>2016-07-24T08:53:56Z</time>
      </trkpt>
      <trkpt lat="42.4044" lon="0.04305">
        <ele>870.8</ele>
        <time>2016-07-24T08:53:57Z</time>
      </trkpt>
      <trkpt lat="42.40439" lon="0.04309">
        <ele>870.2</ele>
        <time>2016-07-24T08:53:58Z</time>
      </trkpt>
      <trkpt lat="42.40439" lon="0.04313">
        <ele>869.6</ele>
        <time>2016-07-24T08:53:59Z</time>
      </trkpt>
      <trkpt lat="42.40439" lon="0.04317">
        <ele>869</ele>
        <time>2016-07-24T08:54:00Z</time>
      </trkpt>
      <trkpt lat="42.40438" lon="0.04321">
        <ele>868.4</ele>
        <time>2016-07-24T08:54:01Z</time>
      </trkpt>
      <trkpt lat="42.40437" lon="0.04325">
        <ele>867.9</ele>
        <time>2016-07-24T08:54:02Z</time>
      </trkpt>
      <trkpt lat="42.40436" lon="0.04329">
        <ele>867.4</ele>
        <time>2016-07-24T08:54:03Z</time>
      </trkpt>
      <trkpt lat="42.40434" lon="0.04332">
        <ele>867</ele>
        <time>2016-07-24T08:54:04Z</time>
      </trkpt>
      <trkpt lat="42.40431" lon="0.04334">
        <ele>866.7</ele>
        <time>2016-07-24T08:54:05Z</time>
      </trkpt>
      <trkpt lat="42.40428" lon="0.04336">
        <ele>866.5</ele>
        <time>2016-07-24T08:54:06Z</time>
      </trkpt>
      <trkpt lat="42.40425" lon="0.04337">
        <ele>866.4</ele>
        <time>2016-07-24T08:54:07Z</time>
      </trkpt>
      <trkpt lat="42.40422" lon="0.04337">
        <ele>866.4</ele>
        <time>2016-07-24T08:54:08Z</time>
      </trkpt>
      <trkpt lat="42.40418" lon="0.04337">
        <ele>866.5</ele>
        <time>2016-07-24T08:54:10Z</time>
      </trkpt>
      <trkpt lat="42.40413" lon="0.04335">
        <ele>867</ele>
        <time>2016-07-24T08:54:12Z</time>
      </trkpt>
      <trkpt lat="42.40409" lon="0.04332">
        <ele>867.7</ele>
        <time>2016-07-24T08:54:14Z</time>
      </trkpt>
      <trkpt lat="42.40406" lon="0.0433">
        <ele>868.3</ele>
        <time>2016-07-24T08:54:16Z</time>
      </trkpt>
      <trkpt lat="42.40402" lon="0.04328">
        <ele>868.8</ele>
        <time>2016-07-24T08:54:18Z</time>
      </trkpt>
      <trkpt lat="42.40398" lon="0.04327">
        <ele>869.2</ele>
        <time>2016-07-24T08:54:20Z</time>
      </trkpt>
      <trkpt lat="42.40395" lon="0.04324">
        <ele>869.9</ele>
        <time>2016-07-24T08:54:22Z</time>
      </trkpt>
      <trkpt lat="42.40392" lon="0.04322">
        <ele>870.6</ele>
        <time>2016-07-24T08:54:24Z</time>
      </trkpt>
      <trkpt lat="42.40388" lon="0.0432">
        <ele>871.2</ele>
        <time>2016-07-24T08:54:26Z</time>
      </trkpt>
      <trkpt lat="42.40385" lon="0.04318">
        <ele>871.9</ele>
        <time>2016-07-24T08:54:28Z</time>
      </trkpt>
      <trkpt lat="42.40382" lon="0.04315">
        <ele>872.7</ele>
        <time>2016-07-24T08:54:30Z</time>
      </trkpt>
      <trkpt lat="42.40379" lon="0.04313">
        <ele>873.4</ele>
        <time>2016-07-24T08:54:32Z</time>
      </trkpt>
      <trkpt lat="42.40376" lon="0.0431">
        <ele>874.3</ele>
        <time>2016-07-24T08:54:34Z</time>
      </trkpt>
      <trkpt lat="42.40374" lon="0.04307">
        <ele>875</ele>
        <time>2016-07-24T08:54:36Z</time>
      </trkpt>
      <trkpt lat="42.40372" lon="0.04304">
        <ele>875.7</ele>
        <time>2016-07-24T08:54:38Z</time>
      </trkpt>
      <trkpt lat="42.4037" lon="0.043">
        <ele>876.5</ele>
        <time>2016-07-24T08:54:40Z</time>
      </trkpt>
      <trkpt lat="42.40368" lon="0.04296">
        <ele>877.3</ele>
        <time>2016-07-24T08:54:42Z</time>
      </trkpt>
      <trkpt lat="42.40367" lon="0.04292">
        <ele>878.3</ele>
        <time>2016-07-24T08:54:44Z</time>
      </trkpt>
      <trkpt lat="42.40365" lon="0.04287">
        <ele>878.9</ele>
        <time>2016-07-24T08:54:46Z</time>
      </trkpt>
      <trkpt lat="42.40362" lon="0.04283">
        <ele>879.3</ele>
        <time>2016-07-24T08:54:48Z</time>
      </trkpt>
      <trkpt lat="42.40359" lon="0.04279">
        <ele>879.9</ele>
        <time>2016-07-24T08:54:50Z</time>
      </trkpt>
      <trkpt lat="42.40357" lon="0.04274">
        <ele>880.4</ele>
        <time>2016-07-24T08:54:52Z</time>
      </trkpt>
      <trkpt lat="42.40354" lon="0.04271">
        <ele>880.8</ele>
        <time>2016-07-24T08:54:54Z</time>
      </trkpt>
      <trkpt lat="42.40351" lon="0.04268">
        <ele>881.1</ele>
        <time>2016-07-24T08:54:56Z</time>
      </trkpt>
      <trkpt lat="42.40348" lon="0.04265">
        <ele>881.2</ele>
        <time>2016-07-24T08:54:58Z</time>
      </trkpt>
      <trkpt lat="42.40344" lon="0.04263">
        <ele>881.3</ele>
        <time>2016-07-24T08:55:00Z</time>
      </trkpt>
      <trkpt lat="42.40341" lon="0.04261">
        <ele>881.4</ele>
        <time>2016-07-24T08:55:02Z</time>
      </trkpt>
      <trkpt lat="42.40337" lon="0.0426">
        <ele>881.3</ele>
        <time>2016-07-24T08:55:04Z</time>
      </trkpt>
      <trkpt lat="42.40334" lon="0.04259">
        <ele>881.3</ele>
        <time>2016-07-24T08:55:06Z</time>
      </trkpt>
      <trkpt lat="42.40331" lon="0.04257">
        <ele>881.3</ele>
        <time>2016-07-24T08:55:08Z</time>
      </trkpt>
      <trkpt lat="42.40328" lon="0.04255">
        <ele>881.5</ele>
        <time>2016-07-24T08:55:10Z</time>
      </trkpt>
      <trkpt lat="42.40325" lon="0.04254">
        <ele>881.4</ele>
        <time>2016-07-24T08:55:12Z</time>
      </trkpt>
      <trkpt lat="42.40321" lon="0.04252">
        <ele>881.4</ele>
        <time>2016-07-24T08:55:14Z</time>
      </trkpt>
      <trkpt lat="42.40318" lon="0.04251">
        <ele>881.4</ele>
        <time>2016-07-24T08:55:16Z</time>
      </trkpt>
      <trkpt lat="42.40315" lon="0.04249">
        <ele>881.4</ele>
        <time>2016-07-24T08:55:18Z</time>
      </trkpt>
      <trkpt lat="42.40311" lon="0.04248">
        <ele>881.4</ele>
        <time>2016-07-24T08:55:20Z</time>
      </trkpt>
      <trkpt lat="42.40307" lon="0.04247">
        <ele>881.3</ele>
        <time>2016-07-24T08:55:22Z</time>
      </trkpt>
      <trkpt lat="42.40304" lon="0.04246">
        <ele>881.2</ele>
        <time>2016-07-24T08:55:24Z</time>
      </trkpt>
      <trkpt lat="42.403" lon="0.04245">
        <ele>881.2</ele>
        <time>2016-07-24T08:55:26Z</time>
      </trkpt>
      <trkpt lat="42.40297" lon="0.04243">
        <ele>881.1</ele>
        <time>2016-07-24T08:55:28Z</time>
      </trkpt>
      <trkpt lat="42.40294" lon="0.04243">
        <ele>881</ele>
        <time>2016-07-24T08:55:30Z</time>
      </trkpt>
      <trkpt lat="42.4029" lon="0.04242">
        <ele>880.5</ele>
        <time>2016-07-24T08:55:32Z</time>
      </trkpt>
      <trkpt lat="42.40286" lon="0.04242">
        <ele>879.4</ele>
        <time>2016-07-24T08:55:34Z</time>
      </trkpt>
      <trkpt lat="42.40281" lon="0.04241">
        <ele>878.2</ele>
        <time>2016-07-24T08:55:36Z</time>
      </trkpt>
      <trkpt lat="42.40277" lon="0.0424">
        <ele>877.2</ele>
        <time>2016-07-24T08:55:38Z</time>
      </trkpt>
      <trkpt lat="42.40272" lon="0.04238">
        <ele>876.1</ele>
        <time>2016-07-24T08:55:40Z</time>
      </trkpt>
      <trkpt lat="42.40267" lon="0.04236">
        <ele>875.1</ele>
        <time>2016-07-24T08:55:42Z</time>
      </trkpt>
      <trkpt lat="42.40262" lon="0.04233">
        <ele>874</ele>
        <time>2016-07-24T08:55:44Z</time>
      </trkpt>
      <trkpt lat="42.40259" lon="0.04232">
        <ele>873.4</ele>
        <time>2016-07-24T08:55:45Z</time>
      </trkpt>
      <trkpt lat="42.40257" lon="0.04231">
        <ele>872.8</ele>
        <time>2016-07-24T08:55:46Z</time>
      </trkpt>
      <trkpt lat="42.40252" lon="0.04229">
        <ele>871.6</ele>
        <time>2016-07-24T08:55:48Z</time>
      </trkpt>
      <trkpt lat="42.40249" lon="0.04228">
        <ele>871</ele>
        <time>2016-07-24T08:55:49Z</time>
      </trkpt>
      <trkpt lat="42.40246" lon="0.04227">
        <ele>870.3</ele>
        <time>2016-07-24T08:55:50Z</time>
      </trkpt>
      <trkpt lat="42.40243" lon="0.04226">
        <ele>869.6</ele>
        <time>2016-07-24T08:55:51Z</time>
      </trkpt>
      <trkpt lat="42.4024" lon="0.04225">
        <ele>868.8</ele>
        <time>2016-07-24T08:55:52Z</time>
      </trkpt>
      <trkpt lat="42.40237" lon="0.04224">
        <ele>868</ele>
        <time>2016-07-24T08:55:53Z</time>
      </trkpt>
      <trkpt lat="42.40234" lon="0.04222">
        <ele>867.4</ele>
        <time>2016-07-24T08:55:54Z</time>
      </trkpt>
      <trkpt lat="42.40232" lon="0.04219">
        <ele>867</ele>
        <time>2016-07-24T08:55:55Z</time>
      </trkpt>
      <trkpt lat="42.40229" lon="0.04215">
        <ele>866.7</ele>
        <time>2016-07-24T08:55:56Z</time>
      </trkpt>
      <trkpt lat="42.40226" lon="0.04211">
        <ele>866.3</ele>
        <time>2016-07-24T08:55:57Z</time>
      </trkpt>
      <trkpt lat="42.40224" lon="0.04207">
        <ele>865.8</ele>
        <time>2016-07-24T08:55:58Z</time>
      </trkpt>
      <trkpt lat="42.4022" lon="0.04203">
        <ele>864.9</ele>
        <time>2016-07-24T08:55:59Z</time>
      </trkpt>
      <trkpt lat="42.40217" lon="0.04199">
        <ele>863.8</ele>
        <time>2016-07-24T08:56:00Z</time>
      </trkpt>
      <trkpt lat="42.40213" lon="0.04196">
        <ele>862.6</ele>
        <time>2016-07-24T08:56:01Z</time>
      </trkpt>
      <trkpt lat="42.40208" lon="0.04193">
        <ele>861.4</ele>
        <time>2016-07-24T08:56:02Z</time>
      </trkpt>
      <trkpt lat="42.40204" lon="0.04192">
        <ele>860.5</ele>
        <time>2016-07-24T08:56:03Z</time>
      </trkpt>
      <trkpt lat="42.40201" lon="0.0419">
        <ele>859.8</ele>
        <time>2016-07-24T08:56:04Z</time>
      </trkpt>
      <trkpt lat="42.40199" lon="0.04187">
        <ele>859.3</ele>
        <time>2016-07-24T08:56:05Z</time>
      </trkpt>
      <trkpt lat="42.40197" lon="0.04184">
        <ele>859.1</ele>
        <time>2016-07-24T08:56:06Z</time>
      </trkpt>
      <trkpt lat="42.40197" lon="0.0418">
        <ele>859.2</ele>
        <time>2016-07-24T08:56:07Z</time>
      </trkpt>
      <trkpt lat="42.40198" lon="0.04176">
        <ele>859.6</ele>
        <time>2016-07-24T08:56:08Z</time>
      </trkpt>
      <trkpt lat="42.40201" lon="0.04173">
        <ele>860.2</ele>
        <time>2016-07-24T08:56:09Z</time>
      </trkpt>
      <trkpt lat="42.40203" lon="0.0417">
        <ele>860.8</ele>
        <time>2016-07-24T08:56:10Z</time>
      </trkpt>
      <trkpt lat="42.40206" lon="0.04168">
        <ele>861.4</ele>
        <time>2016-07-24T08:56:11Z</time>
      </trkpt>
      <trkpt lat="42.40208" lon="0.04165">
        <ele>862</ele>
        <time>2016-07-24T08:56:12Z</time>
      </trkpt>
      <trkpt lat="42.4021" lon="0.04162">
        <ele>862.7</ele>
        <time>2016-07-24T08:56:13Z</time>
      </trkpt>
      <trkpt lat="42.40212" lon="0.04159">
        <ele>863.4</ele>
        <time>2016-07-24T08:56:14Z</time>
      </trkpt>
      <trkpt lat="42.40214" lon="0.04156">
        <ele>864</ele>
        <time>2016-07-24T08:56:15Z</time>
      </trkpt>
      <trkpt lat="42.40215" lon="0.04152">
        <ele>864.4</ele>
        <time>2016-07-24T08:56:16Z</time>
      </trkpt>
      <trkpt lat="42.40216" lon="0.04149">
        <ele>864.7</ele>
        <time>2016-07-24T08:56:17Z</time>
      </trkpt>
      <trkpt lat="42.40216" lon="0.04145">
        <ele>864.8</ele>
        <time>2016-07-24T08:56:18Z</time>
      </trkpt>
      <trkpt lat="42.40216" lon="0.04141">
        <ele>864.8</ele>
        <time>2016-07-24T08:56:19Z</time>
      </trkpt>
      <trkpt lat="42.40215" lon="0.04137">
        <ele>864.8</ele>
        <time>2016-07-24T08:56:20Z</time>
      </trkpt>
      <trkpt lat="42.40215" lon="0.04132">
        <ele>864.7</ele>
        <time>2016-07-24T08:56:21Z</time>
      </trkpt>
      <trkpt lat="42.40215" lon="0.04128">
        <ele>864.8</ele>
        <time>2016-07-24T08:56:22Z</time>
      </trkpt>
      <trkpt lat="42.40215" lon="0.04123">
        <ele>865.5</ele>
        <time>2016-07-24T08:56:23Z</time>
      </trkpt>
      <trkpt lat="42.40216" lon="0.04118">
        <ele>867</ele>
        <time>2016-07-24T08:56:24Z</time>
      </trkpt>
      <trkpt lat="42.40218" lon="0.04114">
        <ele>868.7</ele>
        <time>2016-07-24T08:56:25Z</time>
      </trkpt>
      <trkpt lat="42.40219" lon="0.04109">
        <ele>870.5</ele>
        <time>2016-07-24T08:56:26Z</time>
      </trkpt>
      <trkpt lat="42.40221" lon="0.04104">
        <ele>872.2</ele>
        <time>2016-07-24T08:56:27Z</time>
      </trkpt>
      <trkpt lat="42.40222" lon="0.04099">
        <ele>873.7</ele>
        <time>2016-07-24T08:56:28Z</time>
      </trkpt>
      <trkpt lat="42.40223" lon="0.04095">
        <ele>875</ele>
        <time>2016-07-24T08:56:29Z</time>
      </trkpt>
      <trkpt lat="42.40224" lon="0.0409">
        <ele>876.2</ele>
        <time>2016-07-24T08:56:30Z</time>
      </trkpt>
      <trkpt lat="42.40224" lon="0.04086">
        <ele>877.2</ele>
        <time>2016-07-24T08:56:31Z</time>
      </trkpt>
      <trkpt lat="42.40224" lon="0.04083">
        <ele>878.1</ele>
        <time>2016-07-24T08:56:32Z</time>
      </trkpt>
      <trkpt lat="42.40224" lon="0.04079">
        <ele>879.2</ele>
        <time>2016-07-24T08:56:33Z</time>
      </trkpt>
      <trkpt lat="42.40224" lon="0.04075">
        <ele>880.3</ele>
        <time>2016-07-24T08:56:34Z</time>
      </trkpt>
      <trkpt lat="42.40225" lon="0.0407">
        <ele>881.4</ele>
        <time>2016-07-24T08:56:35Z</time>
      </trkpt>
      <trkpt lat="42.40225" lon="0.04066">
        <ele>882.5</ele>
        <time>2016-07-24T08:56:36Z</time>
      </trkpt>
      <trkpt lat="42.40224" lon="0.04062">
        <ele>883.5</ele>
        <time>2016-07-24T08:56:37Z</time>
      </trkpt>
      <trkpt lat="42.40224" lon="0.04058">
        <ele>884.4</ele>
        <time>2016-07-24T08:56:38Z</time>
      </trkpt>
      <trkpt lat="42.40224" lon="0.04054">
        <ele>885.3</ele>
        <time>2016-07-24T08:56:39Z</time>
      </trkpt>
      <trkpt lat="42.40223" lon="0.0405">
        <ele>886.1</ele>
        <time>2016-07-24T08:56:40Z</time>
      </trkpt>
      <trkpt lat="42.40222" lon="0.04046">
        <ele>886.8</ele>
        <time>2016-07-24T08:56:41Z</time>
      </trkpt>
      <trkpt lat="42.4022" lon="0.04043">
        <ele>887.3</ele>
        <time>2016-07-24T08:56:42Z</time>
      </trkpt>
      <trkpt lat="42.40217" lon="0.04039">
        <ele>887.6</ele>
        <time>2016-07-24T08:56:43Z</time>
      </trkpt>
      <trkpt lat="42.40214" lon="0.04037">
        <ele>887.6</ele>
        <time>2016-07-24T08:56:44Z</time>
      </trkpt>
      <trkpt lat="42.40211" lon="0.04036">
        <ele>887.2</ele>
        <time>2016-07-24T08:56:45Z</time>
      </trkpt>
      <trkpt lat="42.40207" lon="0.04035">
        <ele>886.7</ele>
        <time>2016-07-24T08:56:46Z</time>
      </trkpt>
      <trkpt lat="42.40204" lon="0.04034">
        <ele>886.1</ele>
        <time>2016-07-24T08:56:47Z</time>
      </trkpt>
      <trkpt lat="42.402" lon="0.04034">
        <ele>885.5</ele>
        <time>2016-07-24T08:56:48Z</time>
      </trkpt>
      <trkpt lat="42.40196" lon="0.04033">
        <ele>885</ele>
        <time>2016-07-24T08:56:49Z</time>
      </trkpt>
      <trkpt lat="42.40193" lon="0.04031">
        <ele>884.6</ele>
        <time>2016-07-24T08:56:50Z</time>
      </trkpt>
      <trkpt lat="42.4019" lon="0.04029">
        <ele>884.3</ele>
        <time>2016-07-24T08:56:51Z</time>
      </trkpt>
      <trkpt lat="42.40187" lon="0.04028">
        <ele>884</ele>
        <time>2016-07-24T08:56:52Z</time>
      </trkpt>
      <trkpt lat="42.40184" lon="0.04026">
        <ele>883.7</ele>
        <time>2016-07-24T08:56:53Z</time>
      </trkpt>
      <trkpt lat="42.40182" lon="0.04025">
        <ele>883.5</ele>
        <time>2016-07-24T08:56:54Z</time>
      </trkpt>
      <trkpt lat="42.40179" lon="0.04023">
        <ele>883.2</ele>
        <time>2016-07-24T08:56:55Z</time>
      </trkpt>
      <trkpt lat="42.40176" lon="0.04022">
        <ele>882.9</ele>
        <time>2016-07-24T08:56:56Z</time>
      </trkpt>
      <trkpt lat="42.40173" lon="0.0402">
        <ele>882.7</ele>
        <time>2016-07-24T08:56:57Z</time>
      </trkpt>
      <trkpt lat="42.4017" lon="0.04017">
        <ele>882.4</ele>
        <time>2016-07-24T08:56:58Z</time>
      </trkpt>
      <trkpt lat="42.40167" lon="0.04015">
        <ele>882.2</ele>
        <time>2016-07-24T08:56:59Z</time>
      </trkpt>
      <trkpt lat="42.40164" lon="0.04012">
        <ele>881.9</ele>
        <time>2016-07-24T08:57:00Z</time>
      </trkpt>
      <trkpt lat="42.4016" lon="0.04009">
        <ele>881.6</ele>
        <time>2016-07-24T08:57:01Z</time>
      </trkpt>
      <trkpt lat="42.40156" lon="0.04006">
        <ele>881.3</ele>
        <time>2016-07-24T08:57:02Z</time>
      </trkpt>
      <trkpt lat="42.40153" lon="0.04003">
        <ele>880.9</ele>
        <time>2016-07-24T08:57:03Z</time>
      </trkpt>
      <trkpt lat="42.40149" lon="0.04">
        <ele>880.5</ele>
        <time>2016-07-24T08:57:04Z</time>
      </trkpt>
      <trkpt lat="42.40145" lon="0.03996">
        <ele>880.1</ele>
        <time>2016-07-24T08:57:05Z</time>
      </trkpt>
      <trkpt lat="42.40142" lon="0.03992">
        <ele>879.7</ele>
        <time>2016-07-24T08:57:06Z</time>
      </trkpt>
      <trkpt lat="42.40138" lon="0.03988">
        <ele>879.4</ele>
        <time>2016-07-24T08:57:07Z</time>
      </trkpt>
      <trkpt lat="42.40135" lon="0.03984">
        <ele>879.2</ele>
        <time>2016-07-24T08:57:08Z</time>
      </trkpt>
      <trkpt lat="42.40132" lon="0.0398">
        <ele>878.9</ele>
        <time>2016-07-24T08:57:09Z</time>
      </trkpt>
      <trkpt lat="42.40128" lon="0.03976">
        <ele>878.4</ele>
        <time>2016-07-24T08:57:10Z</time>
      </trkpt>
      <trkpt lat="42.40124" lon="0.03973">
        <ele>877.6</ele>
        <time>2016-07-24T08:57:11Z</time>
      </trkpt>
      <trkpt lat="42.40121" lon="0.0397">
        <ele>877.1</ele>
        <time>2016-07-24T08:57:12Z</time>
      </trkpt>
      <trkpt lat="42.40117" lon="0.03967">
        <ele>876.6</ele>
        <time>2016-07-24T08:57:13Z</time>
      </trkpt>
      <trkpt lat="42.40114" lon="0.03964">
        <ele>876.2</ele>
        <time>2016-07-24T08:57:14Z</time>
      </trkpt>
      <trkpt lat="42.40111" lon="0.03961">
        <ele>876</ele>
        <time>2016-07-24T08:57:15Z</time>
      </trkpt>
      <trkpt lat="42.40109" lon="0.03958">
        <ele>875.9</ele>
        <time>2016-07-24T08:57:16Z</time>
      </trkpt>
      <trkpt lat="42.40107" lon="0.03954">
        <ele>875.9</ele>
        <time>2016-07-24T08:57:17Z</time>
      </trkpt>
      <trkpt lat="42.40105" lon="0.03949">
        <ele>876</ele>
        <time>2016-07-24T08:57:18Z</time>
      </trkpt>
      <trkpt lat="42.40104" lon="0.03945">
        <ele>876.1</ele>
        <time>2016-07-24T08:57:19Z</time>
      </trkpt>
      <trkpt lat="42.40103" lon="0.0394">
        <ele>876.3</ele>
        <time>2016-07-24T08:57:20Z</time>
      </trkpt>
      <trkpt lat="42.40101" lon="0.03936">
        <ele>876.3</ele>
        <time>2016-07-24T08:57:21Z</time>
      </trkpt>
      <trkpt lat="42.401" lon="0.03932">
        <ele>876.4</ele>
        <time>2016-07-24T08:57:22Z</time>
      </trkpt>
      <trkpt lat="42.40098" lon="0.03928">
        <ele>876.3</ele>
        <time>2016-07-24T08:57:23Z</time>
      </trkpt>
      <trkpt lat="42.40097" lon="0.03924">
        <ele>876.2</ele>
        <time>2016-07-24T08:57:24Z</time>
      </trkpt>
      <trkpt lat="42.40094" lon="0.03918">
        <ele>876.2</ele>
        <time>2016-07-24T08:57:26Z</time>
      </trkpt>
      <trkpt lat="42.40093" lon="0.03914">
        <ele>876.3</ele>
        <time>2016-07-24T08:57:27Z</time>
      </trkpt>
      <trkpt lat="42.40093" lon="0.03911">
        <ele>876.5</ele>
        <time>2016-07-24T08:57:28Z</time>
      </trkpt>
      <trkpt lat="42.40093" lon="0.03907">
        <ele>876.9</ele>
        <time>2016-07-24T08:57:29Z</time>
      </trkpt>
      <trkpt lat="42.40093" lon="0.03903">
        <ele>877.4</ele>
        <time>2016-07-24T08:57:30Z</time>
      </trkpt>
      <trkpt lat="42.40093" lon="0.03899">
        <ele>877.8</ele>
        <time>2016-07-24T08:57:31Z</time>
      </trkpt>
      <trkpt lat="42.40093" lon="0.03896">
        <ele>878.2</ele>
        <time>2016-07-24T08:57:32Z</time>
      </trkpt>
      <trkpt lat="42.40094" lon="0.03891">
        <ele>878.7</ele>
        <time>2016-07-24T08:57:33Z</time>
      </trkpt>
      <trkpt lat="42.40094" lon="0.03887">
        <ele>879.2</ele>
        <time>2016-07-24T08:57:34Z</time>
      </trkpt>
      <trkpt lat="42.40094" lon="0.03882">
        <ele>879.7</ele>
        <time>2016-07-24T08:57:35Z</time>
      </trkpt>
      <trkpt lat="42.40093" lon="0.03877">
        <ele>880.1</ele>
        <time>2016-07-24T08:57:36Z</time>
      </trkpt>
      <trkpt lat="42.40093" lon="0.03872">
        <ele>880.4</ele>
        <time>2016-07-24T08:57:37Z</time>
      </trkpt>
      <trkpt lat="42.40093" lon="0.03867">
        <ele>880.7</ele>
        <time>2016-07-24T08:57:38Z</time>
      </trkpt>
      <trkpt lat="42.40092" lon="0.03862">
        <ele>880.9</ele>
        <time>2016-07-24T08:57:39Z</time>
      </trkpt>
      <trkpt lat="42.40091" lon="0.03857">
        <ele>881</ele>
        <time>2016-07-24T08:57:40Z</time>
      </trkpt>
      <trkpt lat="42.4009" lon="0.03852">
        <ele>881</ele>
        <time>2016-07-24T08:57:41Z</time>
      </trkpt>
      <trkpt lat="42.40088" lon="0.03847">
        <ele>881.1</ele>
        <time>2016-07-24T08:57:42Z</time>
      </trkpt>
      <trkpt lat="42.40087" lon="0.03842">
        <ele>881.1</ele>
        <time>2016-07-24T08:57:43Z</time>
      </trkpt>
      <trkpt lat="42.40085" lon="0.03837">
        <ele>881.1</ele>
        <time>2016-07-24T08:57:44Z</time>
      </trkpt>
      <trkpt lat="42.40084" lon="0.03832">
        <ele>881.1</ele>
        <time>2016-07-24T08:57:45Z</time>
      </trkpt>
      <trkpt lat="42.40082" lon="0.03828">
        <ele>881.2</ele>
        <time>2016-07-24T08:57:46Z</time>
      </trkpt>
      <trkpt lat="42.40081" lon="0.03823">
        <ele>881.2</ele>
        <time>2016-07-24T08:57:47Z</time>
      </trkpt>
      <trkpt lat="42.4008" lon="0.03819">
        <ele>881.3</ele>
        <time>2016-07-24T08:57:48Z</time>
      </trkpt>
      <trkpt lat="42.40078" lon="0.03815">
        <ele>881.3</ele>
        <time>2016-07-24T08:57:49Z</time>
      </trkpt>
      <trkpt lat="42.40077" lon="0.03812">
        <ele>881.3</ele>
        <time>2016-07-24T08:57:50Z</time>
      </trkpt>
      <trkpt lat="42.40076" lon="0.03807">
        <ele>881.4</ele>
        <time>2016-07-24T08:57:51Z</time>
      </trkpt>
      <trkpt lat="42.40075" lon="0.03803">
        <ele>881.5</ele>
        <time>2016-07-24T08:57:52Z</time>
      </trkpt>
      <trkpt lat="42.40074" lon="0.03799">
        <ele>881.7</ele>
        <time>2016-07-24T08:57:53Z</time>
      </trkpt>
      <trkpt lat="42.40073" lon="0.03794">
        <ele>881.8</ele>
        <time>2016-07-24T08:57:54Z</time>
      </trkpt>
      <trkpt lat="42.40072" lon="0.0379">
        <ele>882.2</ele>
        <time>2016-07-24T08:57:55Z</time>
      </trkpt>
      <trkpt lat="42.40071" lon="0.03785">
        <ele>883</ele>
        <time>2016-07-24T08:57:56Z</time>
      </trkpt>
      <trkpt lat="42.4007" lon="0.0378">
        <ele>883.9</ele>
        <time>2016-07-24T08:57:57Z</time>
      </trkpt>
      <trkpt lat="42.4007" lon="0.03775">
        <ele>884.9</ele>
        <time>2016-07-24T08:57:58Z</time>
      </trkpt>
      <trkpt lat="42.4007" lon="0.03769">
        <ele>886</ele>
        <time>2016-07-24T08:57:59Z</time>
      </trkpt>
      <trkpt lat="42.40069" lon="0.03763">
        <ele>887.3</ele>
        <time>2016-07-24T08:58:00Z</time>
      </trkpt>
      <trkpt lat="42.40069" lon="0.03757">
        <ele>888.6</ele>
        <time>2016-07-24T08:58:01Z</time>
      </trkpt>
      <trkpt lat="42.40069" lon="0.0375">
        <ele>889.9</ele>
        <time>2016-07-24T08:58:02Z</time>
      </trkpt>
      <trkpt lat="42.40069" lon="0.03745">
        <ele>891.1</ele>
        <time>2016-07-24T08:58:03Z</time>
      </trkpt>
      <trkpt lat="42.4007" lon="0.03739">
        <ele>892.3</ele>
        <time>2016-07-24T08:58:04Z</time>
      </trkpt>
      <trkpt lat="42.4007" lon="0.03734">
        <ele>893.4</ele>
        <time>2016-07-24T08:58:05Z</time>
      </trkpt>
      <trkpt lat="42.4007" lon="0.03729">
        <ele>894.5</ele>
        <time>2016-07-24T08:58:06Z</time>
      </trkpt>
      <trkpt lat="42.4007" lon="0.03724">
        <ele>895.5</ele>
        <time>2016-07-24T08:58:07Z</time>
      </trkpt>
      <trkpt lat="42.4007" lon="0.0372">
        <ele>896.3</ele>
        <time>2016-07-24T08:58:08Z</time>
      </trkpt>
      <trkpt lat="42.4007" lon="0.03713">
        <ele>897.7</ele>
        <time>2016-07-24T08:58:10Z</time>
      </trkpt>
      <trkpt lat="42.40069" lon="0.03708">
        <ele>898.8</ele>
        <time>2016-07-24T08:58:12Z</time>
      </trkpt>
      <trkpt lat="42.40068" lon="0.03702">
        <ele>899.7</ele>
        <time>2016-07-24T08:58:14Z</time>
      </trkpt>
      <trkpt lat="42.40067" lon="0.03697">
        <ele>900.7</ele>
        <time>2016-07-24T08:58:16Z</time>
      </trkpt>
      <trkpt lat="42.40066" lon="0.03692">
        <ele>901.5</ele>
        <time>2016-07-24T08:58:18Z</time>
      </trkpt>
      <trkpt lat="42.40064" lon="0.03687">
        <ele>902.3</ele>
        <time>2016-07-24T08:58:20Z</time>
      </trkpt>
      <trkpt lat="42.4006" lon="0.03682">
        <ele>902.7</ele>
        <time>2016-07-24T08:58:22Z</time>
      </trkpt>
      <trkpt lat="42.40056" lon="0.03678">
        <ele>902.7</ele>
        <time>2016-07-24T08:58:24Z</time>
      </trkpt>
      <trkpt lat="42.40051" lon="0.03675">
        <ele>902.2</ele>
        <time>2016-07-24T08:58:26Z</time>
      </trkpt>
      <trkpt lat="42.40047" lon="0.03674">
        <ele>901.5</ele>
        <time>2016-07-24T08:58:28Z</time>
      </trkpt>
      <trkpt lat="42.40042" lon="0.03673">
        <ele>900.8</ele>
        <time>2016-07-24T08:58:30Z</time>
      </trkpt>
      <trkpt lat="42.40038" lon="0.03673">
        <ele>900.3</ele>
        <time>2016-07-24T08:58:32Z</time>
      </trkpt>
      <trkpt lat="42.40033" lon="0.03672">
        <ele>899.9</ele>
        <time>2016-07-24T08:58:34Z</time>
      </trkpt>
      <trkpt lat="42.40029" lon="0.03671">
        <ele>899.6</ele>
        <time>2016-07-24T08:58:36Z</time>
      </trkpt>
      <trkpt lat="42.40026" lon="0.0367">
        <ele>899.3</ele>
        <time>2016-07-24T08:58:38Z</time>
      </trkpt>
      <trkpt lat="42.40022" lon="0.0367">
        <ele>898.9</ele>
        <time>2016-07-24T08:58:40Z</time>
      </trkpt>
      <trkpt lat="42.40019" lon="0.03669">
        <ele>898.5</ele>
        <time>2016-07-24T08:58:42Z</time>
      </trkpt>
      <trkpt lat="42.40015" lon="0.03668">
        <ele>898.3</ele>
        <time>2016-07-24T08:58:44Z</time>
      </trkpt>
      <trkpt lat="42.40012" lon="0.03666">
        <ele>898.2</ele>
        <time>2016-07-24T08:58:46Z</time>
      </trkpt>
      <trkpt lat="42.40008" lon="0.03665">
        <ele>898</ele>
        <time>2016-07-24T08:58:48Z</time>
      </trkpt>
      <trkpt lat="42.40005" lon="0.03663">
        <ele>897.9</ele>
        <time>2016-07-24T08:58:50Z</time>
      </trkpt>
      <trkpt lat="42.40001" lon="0.03661">
        <ele>897.9</ele>
        <time>2016-07-24T08:58:52Z</time>
      </trkpt>
      <trkpt lat="42.39998" lon="0.03658">
        <ele>898</ele>
        <time>2016-07-24T08:58:54Z</time>
      </trkpt>
      <trkpt lat="42.39995" lon="0.03655">
        <ele>898.2</ele>
        <time>2016-07-24T08:58:56Z</time>
      </trkpt>
      <trkpt lat="42.39993" lon="0.03651">
        <ele>898.7</ele>
        <time>2016-07-24T08:58:58Z</time>
      </trkpt>
      <trkpt lat="42.39991" lon="0.03647">
        <ele>899.3</ele>
        <time>2016-07-24T08:59:00Z</time>
      </trkpt>
      <trkpt lat="42.39989" lon="0.03644">
        <ele>899.7</ele>
        <time>2016-07-24T08:59:02Z</time>
      </trkpt>
      <trkpt lat="42.39987" lon="0.03641">
        <ele>900.2</ele>
        <time>2016-07-24T08:59:04Z</time>
      </trkpt>
      <trkpt lat="42.39985" lon="0.03636">
        <ele>900.9</ele>
        <time>2016-07-24T08:59:06Z</time>
      </trkpt>
      <trkpt lat="42.39983" lon="0.03631">
        <ele>901.8</ele>
        <time>2016-07-24T08:59:08Z</time>
      </trkpt>
      <trkpt lat="42.39981" lon="0.03625">
        <ele>902.8</ele>
        <time>2016-07-24T08:59:10Z</time>
      </trkpt>
      <trkpt lat="42.3998" lon="0.03619">
        <ele>903.6</ele>
        <time>2016-07-24T08:59:12Z</time>
      </trkpt>
      <trkpt lat="42.39979" lon="0.03612">
        <ele>904.5</ele>
        <time>2016-07-24T08:59:14Z</time>
      </trkpt>
      <trkpt lat="42.39977" lon="0.03605">
        <ele>905.4</ele>
        <time>2016-07-24T08:59:16Z</time>
      </trkpt>
      <trkpt lat="42.39976" lon="0.03598">
        <ele>906.3</ele>
        <time>2016-07-24T08:59:18Z</time>
      </trkpt>
      <trkpt lat="42.39974" lon="0.03591">
        <ele>907.2</ele>
        <time>2016-07-24T08:59:20Z</time>
      </trkpt>
      <trkpt lat="42.39972" lon="0.03585">
        <ele>908</ele>
        <time>2016-07-24T08:59:22Z</time>
      </trkpt>
      <trkpt lat="42.39971" lon="0.03581">
        <ele>908.4</ele>
        <time>2016-07-24T08:59:23Z</time>
      </trkpt>
      <trkpt lat="42.39969" lon="0.03575">
        <ele>909.2</ele>
        <time>2016-07-24T08:59:25Z</time>
      </trkpt>
      <trkpt lat="42.39967" lon="0.03569">
        <ele>909.9</ele>
        <time>2016-07-24T08:59:27Z</time>
      </trkpt>
      <trkpt lat="42.39965" lon="0.03564">
        <ele>910.5</ele>
        <time>2016-07-24T08:59:29Z</time>
      </trkpt>
      <trkpt lat="42.39963" lon="0.03558">
        <ele>911</ele>
        <time>2016-07-24T08:59:31Z</time>
      </trkpt>
      <trkpt lat="42.3996" lon="0.03553">
        <ele>911.4</ele>
        <time>2016-07-24T08:59:33Z</time>
      </trkpt>
      <trkpt lat="42.39957" lon="0.03549">
        <ele>911.6</ele>
        <time>2016-07-24T08:59:35Z</time>
      </trkpt>
      <trkpt lat="42.39953" lon="0.03545">
        <ele>911.6</ele>
        <time>2016-07-24T08:59:37Z</time>
      </trkpt>
      <trkpt lat="42.3995" lon="0.0354">
        <ele>911.5</ele>
        <time>2016-07-24T08:59:39Z</time>
      </trkpt>
      <trkpt lat="42.39946" lon="0.03536">
        <ele>911.2</ele>
        <time>2016-07-24T08:59:41Z</time>
      </trkpt>
      <trkpt lat="42.39942" lon="0.03533">
        <ele>910.5</ele>
        <time>2016-07-24T08:59:43Z</time>
      </trkpt>
      <trkpt lat="42.39939" lon="0.03532">
        <ele>910</ele>
        <time>2016-07-24T08:59:44Z</time>
      </trkpt>
      <trkpt lat="42.39936" lon="0.03532">
        <ele>909.4</ele>
        <time>2016-07-24T08:59:45Z</time>
      </trkpt>
      <trkpt lat="42.39933" lon="0.03534">
        <ele>908.6</ele>
        <time>2016-07-24T08:59:46Z</time>
      </trkpt>
      <trkpt lat="42.39931" lon="0.03537">
        <ele>907.9</ele>
        <time>2016-07-24T08:59:47Z</time>
      </trkpt>
      <trkpt lat="42.39928" lon="0.03541">
        <ele>907.3</ele>
        <time>2016-07-24T08:59:48Z</time>
      </trkpt>
      <trkpt lat="42.39926" lon="0.03545">
        <ele>906.6</ele>
        <time>2016-07-24T08:59:49Z</time>
      </trkpt>
      <trkpt lat="42.39924" lon="0.03549">
        <ele>905.9</ele>
        <time>2016-07-24T08:59:50Z</time>
      </trkpt>
      <trkpt lat="42.39923" lon="0.03554">
        <ele>905.3</ele>
        <time>2016-07-24T08:59:51Z</time>
      </trkpt>
      <trkpt lat="42.39921" lon="0.03558">
        <ele>904.6</ele>
        <time>2016-07-24T08:59:52Z</time>
      </trkpt>
      <trkpt lat="42.39918" lon="0.03562">
        <ele>904</ele>
        <time>2016-07-24T08:59:53Z</time>
      </trkpt>
      <trkpt lat="42.39916" lon="0.03566">
        <ele>903.5</ele>
        <time>2016-07-24T08:59:54Z</time>
      </trkpt>
      <trkpt lat="42.39913" lon="0.0357">
        <ele>902.9</ele>
        <time>2016-07-24T08:59:55Z</time>
      </trkpt>
      <trkpt lat="42.3991" lon="0.03573">
        <ele>902.4</ele>
        <time>2016-07-24T08:59:56Z</time>
      </trkpt>
      <trkpt lat="42.39907" lon="0.03576">
        <ele>901.9</ele>
        <time>2016-07-24T08:59:57Z</time>
      </trkpt>
      <trkpt lat="42.39905" lon="0.03578">
        <ele>901.5</ele>
        <time>2016-07-24T08:59:58Z</time>
      </trkpt>
      <trkpt lat="42.39902" lon="0.03581">
        <ele>901.1</ele>
        <time>2016-07-24T08:59:59Z</time>
      </trkpt>
      <trkpt lat="42.39899" lon="0.03584">
        <ele>900.8</ele>
        <time>2016-07-24T09:00:00Z</time>
      </trkpt>
      <trkpt lat="42.39896" lon="0.03587">
        <ele>900.5</ele>
        <time>2016-07-24T09:00:01Z</time>
      </trkpt>
      <trkpt lat="42.39894" lon="0.03591">
        <ele>900.3</ele>
        <time>2016-07-24T09:00:02Z</time>
      </trkpt>
      <trkpt lat="42.39892" lon="0.03594">
        <ele>900.1</ele>
        <time>2016-07-24T09:00:03Z</time>
      </trkpt>
      <trkpt lat="42.39889" lon="0.03597">
        <ele>899.9</ele>
        <time>2016-07-24T09:00:04Z</time>
      </trkpt>
      <trkpt lat="42.39887" lon="0.036">
        <ele>899.8</ele>
        <time>2016-07-24T09:00:05Z</time>
      </trkpt>
      <trkpt lat="42.39884" lon="0.03603">
        <ele>899.6</ele>
        <time>2016-07-24T09:00:06Z</time>
      </trkpt>
      <trkpt lat="42.39881" lon="0.03606">
        <ele>899.6</ele>
        <time>2016-07-24T09:00:07Z</time>
      </trkpt>
      <trkpt lat="42.39877" lon="0.03609">
        <ele>899.5</ele>
        <time>2016-07-24T09:00:08Z</time>
      </trkpt>
      <trkpt lat="42.39874" lon="0.03611">
        <ele>899.1</ele>
        <time>2016-07-24T09:00:09Z</time>
      </trkpt>
      <trkpt lat="42.39871" lon="0.03613">
        <ele>897.8</ele>
        <time>2016-07-24T09:00:10Z</time>
      </trkpt>
      <trkpt lat="42.39867" lon="0.03616">
        <ele>896.6</ele>
        <time>2016-07-24T09:00:11Z</time>
      </trkpt>
      <trkpt lat="42.39864" lon="0.03617">
        <ele>895.4</ele>
        <time>2016-07-24T09:00:12Z</time>
      </trkpt>
      <trkpt lat="42.39861" lon="0.03619">
        <ele>894.3</ele>
        <time>2016-07-24T09:00:13Z</time>
      </trkpt>
      <trkpt lat="42.39858" lon="0.03621">
        <ele>893.4</ele>
        <time>2016-07-24T09:00:14Z</time>
      </trkpt>
      <trkpt lat="42.39854" lon="0.03624">
        <ele>891.8</ele>
        <time>2016-07-24T09:00:16Z</time>
      </trkpt>
      <trkpt lat="42.3985" lon="0.03627">
        <ele>890.2</ele>
        <time>2016-07-24T09:00:18Z</time>
      </trkpt>
      <trkpt lat="42.39846" lon="0.03629">
        <ele>888.5</ele>
        <time>2016-07-24T09:00:20Z</time>
      </trkpt>
      <trkpt lat="42.39841" lon="0.0363">
        <ele>886.6</ele>
        <time>2016-07-24T09:00:22Z</time>
      </trkpt>
      <trkpt lat="42.39836" lon="0.03629">
        <ele>884.8</ele>
        <time>2016-07-24T09:00:24Z</time>
      </trkpt>
      <trkpt lat="42.39833" lon="0.03623">
        <ele>883.5</ele>
        <time>2016-07-24T09:00:26Z</time>
      </trkpt>
      <trkpt lat="42.39832" lon="0.03619">
        <ele>883</ele>
        <time>2016-07-24T09:00:27Z</time>
      </trkpt>
      <trkpt lat="42.39832" lon="0.03615">
        <ele>882.7</ele>
        <time>2016-07-24T09:00:28Z</time>
      </trkpt>
      <trkpt lat="42.39832" lon="0.03611">
        <ele>882.6</ele>
        <time>2016-07-24T09:00:29Z</time>
      </trkpt>
      <trkpt lat="42.39833" lon="0.03608">
        <ele>882.8</ele>
        <time>2016-07-24T09:00:30Z</time>
      </trkpt>
      <trkpt lat="42.39835" lon="0.03604">
        <ele>883.1</ele>
        <time>2016-07-24T09:00:31Z</time>
      </trkpt>
      <trkpt lat="42.39837" lon="0.03601">
        <ele>883.6</ele>
        <time>2016-07-24T09:00:32Z</time>
      </trkpt>
      <trkpt lat="42.3984" lon="0.03596">
        <ele>884.6</ele>
        <time>2016-07-24T09:00:34Z</time>
      </trkpt>
      <trkpt lat="42.39844" lon="0.03591">
        <ele>885.9</ele>
        <time>2016-07-24T09:00:36Z</time>
      </trkpt>
      <trkpt lat="42.39848" lon="0.03586">
        <ele>887.1</ele>
        <time>2016-07-24T09:00:38Z</time>
      </trkpt>
      <trkpt lat="42.39851" lon="0.03581">
        <ele>888.3</ele>
        <time>2016-07-24T09:00:40Z</time>
      </trkpt>
      <trkpt lat="42.39854" lon="0.03576">
        <ele>889.2</ele>
        <time>2016-07-24T09:00:42Z</time>
      </trkpt>
      <trkpt lat="42.39857" lon="0.03571">
        <ele>890.2</ele>
        <time>2016-07-24T09:00:44Z</time>
      </trkpt>
      <trkpt lat="42.39859" lon="0.03567">
        <ele>891</ele>
        <time>2016-07-24T09:00:46Z</time>
      </trkpt>
      <trkpt lat="42.39862" lon="0.03563">
        <ele>891.9</ele>
        <time>2016-07-24T09:00:48Z</time>
      </trkpt>
      <trkpt lat="42.39864" lon="0.03558">
        <ele>892.7</ele>
        <time>2016-07-24T09:00:50Z</time>
      </trkpt>
      <trkpt lat="42.39866" lon="0.03554">
        <ele>893.3</ele>
        <time>2016-07-24T09:00:52Z</time>
      </trkpt>
      <trkpt lat="42.39868" lon="0.03551">
        <ele>894</ele>
        <time>2016-07-24T09:00:54Z</time>
      </trkpt>
      <trkpt lat="42.3987" lon="0.03547">
        <ele>894.7</ele>
        <time>2016-07-24T09:00:56Z</time>
      </trkpt>
      <trkpt lat="42.39871" lon="0.03544">
        <ele>895.4</ele>
        <time>2016-07-24T09:00:58Z</time>
      </trkpt>
      <trkpt lat="42.39874" lon="0.03541">
        <ele>896.3</ele>
        <time>2016-07-24T09:01:00Z</time>
      </trkpt>
      <trkpt lat="42.39876" lon="0.03538">
        <ele>896.9</ele>
        <time>2016-07-24T09:01:02Z</time>
      </trkpt>
      <trkpt lat="42.39878" lon="0.03535">
        <ele>897.1</ele>
        <time>2016-07-24T09:01:04Z</time>
      </trkpt>
      <trkpt lat="42.39881" lon="0.03531">
        <ele>897.4</ele>
        <time>2016-07-24T09:01:06Z</time>
      </trkpt>
      <trkpt lat="42.39884" lon="0.03528">
        <ele>897.8</ele>
        <time>2016-07-24T09:01:08Z</time>
      </trkpt>
      <trkpt lat="42.39887" lon="0.03524">
        <ele>898.3</ele>
        <time>2016-07-24T09:01:10Z</time>
      </trkpt>
      <trkpt lat="42.39889" lon="0.0352">
        <ele>898.7</ele>
        <time>2016-07-24T09:01:12Z</time>
      </trkpt>
      <trkpt lat="42.39892" lon="0.03516">
        <ele>899.2</ele>
        <time>2016-07-24T09:01:14Z</time>
      </trkpt>
      <trkpt lat="42.39895" lon="0.03512">
        <ele>899.8</ele>
        <time>2016-07-24T09:01:16Z</time>
      </trkpt>
      <trkpt lat="42.39898" lon="0.03508">
        <ele>900.5</ele>
        <time>2016-07-24T09:01:18Z</time>
      </trkpt>
      <trkpt lat="42.39901" lon="0.03505">
        <ele>901.2</ele>
        <time>2016-07-24T09:01:20Z</time>
      </trkpt>
      <trkpt lat="42.39904" lon="0.03501">
        <ele>902</ele>
        <time>2016-07-24T09:01:22Z</time>
      </trkpt>
      <trkpt lat="42.39908" lon="0.03497">
        <ele>903</ele>
        <time>2016-07-24T09:01:24Z</time>
      </trkpt>
      <trkpt lat="42.39911" lon="0.03492">
        <ele>904</ele>
        <time>2016-07-24T09:01:26Z</time>
      </trkpt>
      <trkpt lat="42.39914" lon="0.03488">
        <ele>905</ele>
        <time>2016-07-24T09:01:28Z</time>
      </trkpt>
      <trkpt lat="42.39917" lon="0.03484">
        <ele>906.1</ele>
        <time>2016-07-24T09:01:30Z</time>
      </trkpt>
      <trkpt lat="42.3992" lon="0.0348">
        <ele>907.3</ele>
        <time>2016-07-24T09:01:32Z</time>
      </trkpt>
      <trkpt lat="42.39922" lon="0.03475">
        <ele>908.1</ele>
        <time>2016-07-24T09:01:34Z</time>
      </trkpt>
      <trkpt lat="42.39924" lon="0.03472">
        <ele>909</ele>
        <time>2016-07-24T09:01:36Z</time>
      </trkpt>
      <trkpt lat="42.39927" lon="0.03468">
        <ele>910.1</ele>
        <time>2016-07-24T09:01:38Z</time>
      </trkpt>
      <trkpt lat="42.39929" lon="0.03464">
        <ele>911.2</ele>
        <time>2016-07-24T09:01:40Z</time>
      </trkpt>
      <trkpt lat="42.39932" lon="0.03461">
        <ele>912.5</ele>
        <time>2016-07-24T09:01:42Z</time>
      </trkpt>
      <trkpt lat="42.39935" lon="0.03458">
        <ele>913.6</ele>
        <time>2016-07-24T09:01:44Z</time>
      </trkpt>
      <trkpt lat="42.39937" lon="0.03455">
        <ele>914.8</ele>
        <time>2016-07-24T09:01:46Z</time>
      </trkpt>
      <trkpt lat="42.3994" lon="0.03451">
        <ele>916.2</ele>
        <time>2016-07-24T09:01:48Z</time>
      </trkpt>
      <trkpt lat="42.39944" lon="0.03448">
        <ele>917.7</ele>
        <time>2016-07-24T09:01:50Z</time>
      </trkpt>
      <trkpt lat="42.39947" lon="0.03446">
        <ele>919</ele>
        <time>2016-07-24T09:01:52Z</time>
      </trkpt>
      <trkpt lat="42.3995" lon="0.03443">
        <ele>920.4</ele>
        <time>2016-07-24T09:01:54Z</time>
      </trkpt>
      <trkpt lat="42.39953" lon="0.03441">
        <ele>921.9</ele>
        <time>2016-07-24T09:01:56Z</time>
      </trkpt>
      <trkpt lat="42.39956" lon="0.0344">
        <ele>923.3</ele>
        <time>2016-07-24T09:01:58Z</time>
      </trkpt>
      <trkpt lat="42.3996" lon="0.03438">
        <ele>924.6</ele>
        <time>2016-07-24T09:02:00Z</time>
      </trkpt>
      <trkpt lat="42.39965" lon="0.03439">
        <ele>925.5</ele>
        <time>2016-07-24T09:02:02Z</time>
      </trkpt>
      <trkpt lat="42.39969" lon="0.03442">
        <ele>926.3</ele>
        <time>2016-07-24T09:02:04Z</time>
      </trkpt>
      <trkpt lat="42.39972" lon="0.03444">
        <ele>926.6</ele>
        <time>2016-07-24T09:02:05Z</time>
      </trkpt>
      <trkpt lat="42.39974" lon="0.03447">
        <ele>926.8</ele>
        <time>2016-07-24T09:02:06Z</time>
      </trkpt>
      <trkpt lat="42.39976" lon="0.0345">
        <ele>927.1</ele>
        <time>2016-07-24T09:02:07Z</time>
      </trkpt>
      <trkpt lat="42.39978" lon="0.03453">
        <ele>927.2</ele>
        <time>2016-07-24T09:02:08Z</time>
      </trkpt>
      <trkpt lat="42.3998" lon="0.03455">
        <ele>927.4</ele>
        <time>2016-07-24T09:02:09Z</time>
      </trkpt>
      <trkpt lat="42.39982" lon="0.03458">
        <ele>927.5</ele>
        <time>2016-07-24T09:02:10Z</time>
      </trkpt>
      <trkpt lat="42.39984" lon="0.03461">
        <ele>927.6</ele>
        <time>2016-07-24T09:02:11Z</time>
      </trkpt>
      <trkpt lat="42.39986" lon="0.03463">
        <ele>927.6</ele>
        <time>2016-07-24T09:02:12Z</time>
      </trkpt>
      <trkpt lat="42.39988" lon="0.03466">
        <ele>927.6</ele>
        <time>2016-07-24T09:02:13Z</time>
      </trkpt>
      <trkpt lat="42.39992" lon="0.03471">
        <ele>927.6</ele>
        <time>2016-07-24T09:02:15Z</time>
      </trkpt>
      <trkpt lat="42.39996" lon="0.03476">
        <ele>927.6</ele>
        <time>2016-07-24T09:02:17Z</time>
      </trkpt>
      <trkpt lat="42.39998" lon="0.03479">
        <ele>927.6</ele>
        <time>2016-07-24T09:02:18Z</time>
      </trkpt>
      <trkpt lat="42.4" lon="0.03481">
        <ele>927.5</ele>
        <time>2016-07-24T09:02:19Z</time>
      </trkpt>
      <trkpt lat="42.40002" lon="0.03484">
        <ele>927.5</ele>
        <time>2016-07-24T09:02:20Z</time>
      </trkpt>
      <trkpt lat="42.40004" lon="0.03486">
        <ele>927.6</ele>
        <time>2016-07-24T09:02:21Z</time>
      </trkpt>
      <trkpt lat="42.40006" lon="0.03488">
        <ele>927.6</ele>
        <time>2016-07-24T09:02:22Z</time>
      </trkpt>
      <trkpt lat="42.4001" lon="0.03492">
        <ele>927.7</ele>
        <time>2016-07-24T09:02:24Z</time>
      </trkpt>
      <trkpt lat="42.40014" lon="0.03496">
        <ele>927.6</ele>
        <time>2016-07-24T09:02:26Z</time>
      </trkpt>
      <trkpt lat="42.40017" lon="0.03501">
        <ele>927.4</ele>
        <time>2016-07-24T09:02:28Z</time>
      </trkpt>
      <trkpt lat="42.40021" lon="0.03506">
        <ele>927</ele>
        <time>2016-07-24T09:02:30Z</time>
      </trkpt>
      <trkpt lat="42.40023" lon="0.03511">
        <ele>926.6</ele>
        <time>2016-07-24T09:02:32Z</time>
      </trkpt>
      <trkpt lat="42.40026" lon="0.03517">
        <ele>926.1</ele>
        <time>2016-07-24T09:02:34Z</time>
      </trkpt>
      <trkpt lat="42.40028" lon="0.03522">
        <ele>925.5</ele>
        <time>2016-07-24T09:02:36Z</time>
      </trkpt>
      <trkpt lat="42.4003" lon="0.03527">
        <ele>924.9</ele>
        <time>2016-07-24T09:02:38Z</time>
      </trkpt>
      <trkpt lat="42.40033" lon="0.03531">
        <ele>924.7</ele>
        <time>2016-07-24T09:02:40Z</time>
      </trkpt>
      <trkpt lat="42.40037" lon="0.03531">
        <ele>925.1</ele>
        <time>2016-07-24T09:02:42Z</time>
      </trkpt>
      <trkpt lat="42.4004" lon="0.03528">
        <ele>926.2</ele>
        <time>2016-07-24T09:02:44Z</time>
      </trkpt>
      <trkpt lat="42.4004" lon="0.03522">
        <ele>927.4</ele>
        <time>2016-07-24T09:02:46Z</time>
      </trkpt>
      <trkpt lat="42.40039" lon="0.03515">
        <ele>928.3</ele>
        <time>2016-07-24T09:02:48Z</time>
      </trkpt>
      <trkpt lat="42.40036" lon="0.03509">
        <ele>929</ele>
        <time>2016-07-24T09:02:50Z</time>
      </trkpt>
      <trkpt lat="42.40034" lon="0.03503">
        <ele>929.7</ele>
        <time>2016-07-24T09:02:52Z</time>
      </trkpt>
      <trkpt lat="42.40032" lon="0.03497">
        <ele>930.5</ele>
        <time>2016-07-24T09:02:54Z</time>
      </trkpt>
      <trkpt lat="42.4003" lon="0.03491">
        <ele>931.1</ele>
        <time>2016-07-24T09:02:56Z</time>
      </trkpt>
      <trkpt lat="42.40029" lon="0.03486">
        <ele>931.8</ele>
        <time>2016-07-24T09:02:58Z</time>
      </trkpt>
      <trkpt lat="42.40027" lon="0.03481">
        <ele>932.4</ele>
        <time>2016-07-24T09:03:00Z</time>
      </trkpt>
      <trkpt lat="42.40026" lon="0.03475">
        <ele>933.1</ele>
        <time>2016-07-24T09:03:02Z</time>
      </trkpt>
      <trkpt lat="42.40025" lon="0.03469">
        <ele>933.9</ele>
        <time>2016-07-24T09:03:04Z</time>
      </trkpt>
      <trkpt lat="42.40023" lon="0.03464">
        <ele>934.6</ele>
        <time>2016-07-24T09:03:06Z</time>
      </trkpt>
      <trkpt lat="42.40022" lon="0.03458">
        <ele>935.2</ele>
        <time>2016-07-24T09:03:08Z</time>
      </trkpt>
      <trkpt lat="42.4002" lon="0.03453">
        <ele>935.6</ele>
        <time>2016-07-24T09:03:10Z</time>
      </trkpt>
      <trkpt lat="42.40019" lon="0.03448">
        <ele>936</ele>
        <time>2016-07-24T09:03:12Z</time>
      </trkpt>
      <trkpt lat="42.40017" lon="0.03444">
        <ele>936.3</ele>
        <time>2016-07-24T09:03:14Z</time>
      </trkpt>
      <trkpt lat="42.40015" lon="0.0344">
        <ele>936.3</ele>
        <time>2016-07-24T09:03:16Z</time>
      </trkpt>
      <trkpt lat="42.40013" lon="0.03436">
        <ele>936.3</ele>
        <time>2016-07-24T09:03:18Z</time>
      </trkpt>
      <trkpt lat="42.40011" lon="0.03433">
        <ele>936.3</ele>
        <time>2016-07-24T09:03:20Z</time>
      </trkpt>
      <trkpt lat="42.40009" lon="0.03429">
        <ele>936.3</ele>
        <time>2016-07-24T09:03:22Z</time>
      </trkpt>
      <trkpt lat="42.40007" lon="0.03425">
        <ele>936.4</ele>
        <time>2016-07-24T09:03:24Z</time>
      </trkpt>
      <trkpt lat="42.40005" lon="0.03421">
        <ele>936.4</ele>
        <time>2016-07-24T09:03:26Z</time>
      </trkpt>
      <trkpt lat="42.40004" lon="0.03418">
        <ele>936.5</ele>
        <time>2016-07-24T09:03:28Z</time>
      </trkpt>
      <trkpt lat="42.40002" lon="0.03415">
        <ele>936.5</ele>
        <time>2016-07-24T09:03:30Z</time>
      </trkpt>
      <trkpt lat="42.40001" lon="0.03411">
        <ele>936.5</ele>
        <time>2016-07-24T09:03:32Z</time>
      </trkpt>
      <trkpt lat="42.39999" lon="0.03408">
        <ele>936.6</ele>
        <time>2016-07-24T09:03:34Z</time>
      </trkpt>
      <trkpt lat="42.39998" lon="0.03403">
        <ele>936.7</ele>
        <time>2016-07-24T09:03:36Z</time>
      </trkpt>
      <trkpt lat="42.39996" lon="0.03399">
        <ele>936.8</ele>
        <time>2016-07-24T09:03:38Z</time>
      </trkpt>
      <trkpt lat="42.39995" lon="0.03395">
        <ele>936.9</ele>
        <time>2016-07-24T09:03:40Z</time>
      </trkpt>
      <trkpt lat="42.39995" lon="0.03391">
        <ele>937.2</ele>
        <time>2016-07-24T09:03:42Z</time>
      </trkpt>
      <trkpt lat="42.39994" lon="0.03387">
        <ele>937.5</ele>
        <time>2016-07-24T09:03:44Z</time>
      </trkpt>
      <trkpt lat="42.39993" lon="0.03382">
        <ele>937.8</ele>
        <time>2016-07-24T09:03:46Z</time>
      </trkpt>
      <trkpt lat="42.39993" lon="0.03378">
        <ele>938</ele>
        <time>2016-07-24T09:03:48Z</time>
      </trkpt>
      <trkpt lat="42.39991" lon="0.03373">
        <ele>938</ele>
        <time>2016-07-24T09:03:50Z</time>
      </trkpt>
      <trkpt lat="42.39989" lon="0.03368">
        <ele>937.7</ele>
        <time>2016-07-24T09:03:52Z</time>
      </trkpt>
      <trkpt lat="42.39987" lon="0.03364">
        <ele>937.3</ele>
        <time>2016-07-24T09:03:54Z</time>
      </trkpt>
      <trkpt lat="42.39985" lon="0.0336">
        <ele>936.8</ele>
        <time>2016-07-24T09:03:56Z</time>
      </trkpt>
      <trkpt lat="42.39983" lon="0.03356">
        <ele>936.2</ele>
        <time>2016-07-24T09:03:58Z</time>
      </trkpt>
      <trkpt lat="42.3998" lon="0.03353">
        <ele>935.5</ele>
        <time>2016-07-24T09:04:00Z</time>
      </trkpt>
      <trkpt lat="42.39978" lon="0.0335">
        <ele>934.7</ele>
        <time>2016-07-24T09:04:02Z</time>
      </trkpt>
      <trkpt lat="42.39975" lon="0.03347">
        <ele>933.8</ele>
        <time>2016-07-24T09:04:04Z</time>
      </trkpt>
      <trkpt lat="42.39972" lon="0.03344">
        <ele>932.9</ele>
        <time>2016-07-24T09:04:06Z</time>
      </trkpt>
      <trkpt lat="42.39969" lon="0.03342">
        <ele>931.9</ele>
        <time>2016-07-24T09:04:08Z</time>
      </trkpt>
      <trkpt lat="42.39966" lon="0.0334">
        <ele>930.8</ele>
        <time>2016-07-24T09:04:10Z</time>
      </trkpt>
      <trkpt lat="42.39963" lon="0.03338">
        <ele>929.6</ele>
        <time>2016-07-24T09:04:12Z</time>
      </trkpt>
      <trkpt lat="42.3996" lon="0.03335">
        <ele>928.5</ele>
        <time>2016-07-24T09:04:14Z</time>
      </trkpt>
      <trkpt lat="42.39957" lon="0.03332">
        <ele>927.6</ele>
        <time>2016-07-24T09:04:16Z</time>
      </trkpt>
      <trkpt lat="42.39956" lon="0.03329">
        <ele>926.7</ele>
        <time>2016-07-24T09:04:18Z</time>
      </trkpt>
      <trkpt lat="42.39953" lon="0.03326">
        <ele>925.7</ele>
        <time>2016-07-24T09:04:20Z</time>
      </trkpt>
      <trkpt lat="42.39951" lon="0.03324">
        <ele>924.8</ele>
        <time>2016-07-24T09:04:22Z</time>
      </trkpt>
      <trkpt lat="42.3995" lon="0.0332">
        <ele>924.2</ele>
        <time>2016-07-24T09:04:24Z</time>
      </trkpt>
      <trkpt lat="42.3995" lon="0.03316">
        <ele>924.5</ele>
        <time>2016-07-24T09:04:26Z</time>
      </trkpt>
      <trkpt lat="42.39953" lon="0.03313">
        <ele>925.6</ele>
        <time>2016-07-24T09:04:28Z</time>
      </trkpt>
      <trkpt lat="42.39956" lon="0.03311">
        <ele>927.2</ele>
        <time>2016-07-24T09:04:30Z</time>
      </trkpt>
      <trkpt lat="42.39961" lon="0.03312">
        <ele>929</ele>
        <time>2016-07-24T09:04:32Z</time>
      </trkpt>
      <trkpt lat="42.39965" lon="0.03314">
        <ele>930.8</ele>
        <time>2016-07-24T09:04:34Z</time>
      </trkpt>
      <trkpt lat="42.39969" lon="0.03317">
        <ele>932.4</ele>
        <time>2016-07-24T09:04:36Z</time>
      </trkpt>
      <trkpt lat="42.39973" lon="0.0332">
        <ele>934</ele>
        <time>2016-07-24T09:04:38Z</time>
      </trkpt>
      <trkpt lat="42.39977" lon="0.03321">
        <ele>935.6</ele>
        <time>2016-07-24T09:04:40Z</time>
      </trkpt>
      <trkpt lat="42.39981" lon="0.03322">
        <ele>937.1</ele>
        <time>2016-07-24T09:04:42Z</time>
      </trkpt>
      <trkpt lat="42.39985" lon="0.03324">
        <ele>938.5</ele>
        <time>2016-07-24T09:04:44Z</time>
      </trkpt>
      <trkpt lat="42.39989" lon="0.03326">
        <ele>940.1</ele>
        <time>2016-07-24T09:04:46Z</time>
      </trkpt>
      <trkpt lat="42.39993" lon="0.03327">
        <ele>941.5</ele>
        <time>2016-07-24T09:04:48Z</time>
      </trkpt>
      <trkpt lat="42.39997" lon="0.03328">
        <ele>943</ele>
        <time>2016-07-24T09:04:50Z</time>
      </trkpt>
      <trkpt lat="42.40001" lon="0.0333">
        <ele>944.3</ele>
        <time>2016-07-24T09:04:52Z</time>
      </trkpt>
      <trkpt lat="42.40004" lon="0.03331">
        <ele>945.6</ele>
        <time>2016-07-24T09:04:54Z</time>
      </trkpt>
      <trkpt lat="42.40008" lon="0.03332">
        <ele>947</ele>
        <time>2016-07-24T09:04:56Z</time>
      </trkpt>
      <trkpt lat="42.40011" lon="0.03333">
        <ele>948.1</ele>
        <time>2016-07-24T09:04:58Z</time>
      </trkpt>
      <trkpt lat="42.40015" lon="0.03334">
        <ele>949.2</ele>
        <time>2016-07-24T09:05:00Z</time>
      </trkpt>
      <trkpt lat="42.40018" lon="0.03335">
        <ele>950.3</ele>
        <time>2016-07-24T09:05:02Z</time>
      </trkpt>
      <trkpt lat="42.40021" lon="0.03336">
        <ele>951.3</ele>
        <time>2016-07-24T09:05:04Z</time>
      </trkpt>
      <trkpt lat="42.40024" lon="0.03337">
        <ele>952.3</ele>
        <time>2016-07-24T09:05:06Z</time>
      </trkpt>
      <trkpt lat="42.40027" lon="0.03339">
        <ele>953.2</ele>
        <time>2016-07-24T09:05:08Z</time>
      </trkpt>
      <trkpt lat="42.4003" lon="0.0334">
        <ele>954</ele>
        <time>2016-07-24T09:05:10Z</time>
      </trkpt>
      <trkpt lat="42.40032" lon="0.03342">
        <ele>954.6</ele>
        <time>2016-07-24T09:05:12Z</time>
      </trkpt>
      <trkpt lat="42.40034" lon="0.03345">
        <ele>955</ele>
        <time>2016-07-24T09:05:14Z</time>
      </trkpt>
      <trkpt lat="42.40037" lon="0.03348">
        <ele>955.4</ele>
        <time>2016-07-24T09:05:16Z</time>
      </trkpt>
      <trkpt lat="42.40039" lon="0.03351">
        <ele>955.9</ele>
        <time>2016-07-24T09:05:18Z</time>
      </trkpt>
      <trkpt lat="42.40042" lon="0.03353">
        <ele>956.4</ele>
        <time>2016-07-24T09:05:20Z</time>
      </trkpt>
      <trkpt lat="42.40044" lon="0.03355">
        <ele>956.4</ele>
        <time>2016-07-24T09:05:22Z</time>
      </trkpt>
      <trkpt lat="42.40047" lon="0.03357">
        <ele>956.4</ele>
        <time>2016-07-24T09:05:24Z</time>
      </trkpt>
      <trkpt lat="42.4005" lon="0.0336">
        <ele>956.4</ele>
        <time>2016-07-24T09:05:26Z</time>
      </trkpt>
      <trkpt lat="42.40052" lon="0.03362">
        <ele>956.5</ele>
        <time>2016-07-24T09:05:28Z</time>
      </trkpt>
      <trkpt lat="42.40055" lon="0.03364">
        <ele>956.5</ele>
        <time>2016-07-24T09:05:30Z</time>
      </trkpt>
      <trkpt lat="42.40059" lon="0.03366">
        <ele>956.7</ele>
        <time>2016-07-24T09:05:32Z</time>
      </trkpt>
      <trkpt lat="42.40062" lon="0.03368">
        <ele>956.8</ele>
        <time>2016-07-24T09:05:34Z</time>
      </trkpt>
      <trkpt lat="42.40065" lon="0.03369">
        <ele>957</ele>
        <time>2016-07-24T09:05:36Z</time>
      </trkpt>
      <trkpt lat="42.40068" lon="0.03371">
        <ele>957.2</ele>
        <time>2016-07-24T09:05:38Z</time>
      </trkpt>
      <trkpt lat="42.40072" lon="0.03372">
        <ele>957.4</ele>
        <time>2016-07-24T09:05:40Z</time>
      </trkpt>
      <trkpt lat="42.40075" lon="0.03372">
        <ele>957.8</ele>
        <time>2016-07-24T09:05:42Z</time>
      </trkpt>
      <trkpt lat="42.40078" lon="0.03371">
        <ele>958.4</ele>
        <time>2016-07-24T09:05:44Z</time>
      </trkpt>
      <trkpt lat="42.40081" lon="0.0337">
        <ele>959.1</ele>
        <time>2016-07-24T09:05:46Z</time>
      </trkpt>
      <trkpt lat="42.40084" lon="0.03367">
        <ele>959.8</ele>
        <time>2016-07-24T09:05:48Z</time>
      </trkpt>
      <trkpt lat="42.40086" lon="0.03364">
        <ele>960.6</ele>
        <time>2016-07-24T09:05:50Z</time>
      </trkpt>
      <trkpt lat="42.40088" lon="0.0336">
        <ele>961.4</ele>
        <time>2016-07-24T09:05:52Z</time>
      </trkpt>
      <trkpt lat="42.40087" lon="0.03355">
        <ele>961.9</ele>
        <time>2016-07-24T09:05:54Z</time>
      </trkpt>
      <trkpt lat="42.40084" lon="0.03352">
        <ele>962.1</ele>
        <time>2016-07-24T09:05:56Z</time>
      </trkpt>
      <trkpt lat="42.4008" lon="0.0335">
        <ele>961.9</ele>
        <time>2016-07-24T09:05:58Z</time>
      </trkpt>
      <trkpt lat="42.40077" lon="0.03348">
        <ele>961.8</ele>
        <time>2016-07-24T09:06:00Z</time>
      </trkpt>
      <trkpt lat="42.40075" lon="0.03344">
        <ele>962</ele>
        <time>2016-07-24T09:06:02Z</time>
      </trkpt>
      <trkpt lat="42.40074" lon="0.0334">
        <ele>962.6</ele>
        <time>2016-07-24T09:06:04Z</time>
      </trkpt>
      <trkpt lat="42.40074" lon="0.03335">
        <ele>963.2</ele>
        <time>2016-07-24T09:06:07Z</time>
      </trkpt>
      <trkpt lat="42.40072" lon="0.03331">
        <ele>963.8</ele>
        <time>2016-07-24T09:06:10Z</time>
      </trkpt>
      <trkpt lat="42.4007" lon="0.03326">
        <ele>964.2</ele>
        <time>2016-07-24T09:06:13Z</time>
      </trkpt>
      <trkpt lat="42.40069" lon="0.03323">
        <ele>964.5</ele>
        <time>2016-07-24T09:06:15Z</time>
      </trkpt>
      <trkpt lat="42.40066" lon="0.03319">
        <ele>964.8</ele>
        <time>2016-07-24T09:06:18Z</time>
      </trkpt>
      <trkpt lat="42.40064" lon="0.03315">
        <ele>965.1</ele>
        <time>2016-07-24T09:06:21Z</time>
      </trkpt>
      <trkpt lat="42.40062" lon="0.03311">
        <ele>965.4</ele>
        <time>2016-07-24T09:06:23Z</time>
      </trkpt>
      <trkpt lat="42.4006" lon="0.03308">
        <ele>965.7</ele>
        <time>2016-07-24T09:06:25Z</time>
      </trkpt>
      <trkpt lat="42.40058" lon="0.03305">
        <ele>965.9</ele>
        <time>2016-07-24T09:06:27Z</time>
      </trkpt>
      <trkpt lat="42.40056" lon="0.03301">
        <ele>966.3</ele>
        <time>2016-07-24T09:06:29Z</time>
      </trkpt>
      <trkpt lat="42.40055" lon="0.03297">
        <ele>966.8</ele>
        <time>2016-07-24T09:06:31Z</time>
      </trkpt>
      <trkpt lat="42.40054" lon="0.03293">
        <ele>967.3</ele>
        <time>2016-07-24T09:06:33Z</time>
      </trkpt>
      <trkpt lat="42.40053" lon="0.03289">
        <ele>967.6</ele>
        <time>2016-07-24T09:06:35Z</time>
      </trkpt>
      <trkpt lat="42.40052" lon="0.03285">
        <ele>967.7</ele>
        <time>2016-07-24T09:06:37Z</time>
      </trkpt>
      <trkpt lat="42.4005" lon="0.03281">
        <ele>967.8</ele>
        <time>2016-07-24T09:06:39Z</time>
      </trkpt>
      <trkpt lat="42.40048" lon="0.03278">
        <ele>967.8</ele>
        <time>2016-07-24T09:06:41Z</time>
      </trkpt>
      <trkpt lat="42.40046" lon="0.03274">
        <ele>967.8</ele>
        <time>2016-07-24T09:06:43Z</time>
      </trkpt>
      <trkpt lat="42.40044" lon="0.03271">
        <ele>967.8</ele>
        <time>2016-07-24T09:06:45Z</time>
      </trkpt>
      <trkpt lat="42.40043" lon="0.03267">
        <ele>968</ele>
        <time>2016-07-24T09:06:47Z</time>
      </trkpt>
      <trkpt lat="42.40042" lon="0.03262">
        <ele>968.1</ele>
        <time>2016-07-24T09:06:49Z</time>
      </trkpt>
      <trkpt lat="42.4004" lon="0.03259">
        <ele>967.7</ele>
        <time>2016-07-24T09:06:51Z</time>
      </trkpt>
      <trkpt lat="42.40038" lon="0.03255">
        <ele>967</ele>
        <time>2016-07-24T09:06:53Z</time>
      </trkpt>
      <trkpt lat="42.40036" lon="0.03252">
        <ele>966.1</ele>
        <time>2016-07-24T09:06:55Z</time>
      </trkpt>
      <trkpt lat="42.40033" lon="0.03249">
        <ele>965</ele>
        <time>2016-07-24T09:06:57Z</time>
      </trkpt>
      <trkpt lat="42.40031" lon="0.03246">
        <ele>964</ele>
        <time>2016-07-24T09:06:59Z</time>
      </trkpt>
      <trkpt lat="42.40029" lon="0.03243">
        <ele>963.4</ele>
        <time>2016-07-24T09:07:01Z</time>
      </trkpt>
      <trkpt lat="42.40028" lon="0.03239">
        <ele>963.1</ele>
        <time>2016-07-24T09:07:03Z</time>
      </trkpt>
      <trkpt lat="42.40027" lon="0.03235">
        <ele>963.2</ele>
        <time>2016-07-24T09:07:05Z</time>
      </trkpt>
      <trkpt lat="42.40027" lon="0.0323">
        <ele>963.4</ele>
        <time>2016-07-24T09:07:07Z</time>
      </trkpt>
      <trkpt lat="42.40026" lon="0.03227">
        <ele>963.2</ele>
        <time>2016-07-24T09:07:09Z</time>
      </trkpt>
      <trkpt lat="42.40025" lon="0.03223">
        <ele>962.8</ele>
        <time>2016-07-24T09:07:11Z</time>
      </trkpt>
      <trkpt lat="42.40024" lon="0.0322">
        <ele>962.5</ele>
        <time>2016-07-24T09:07:13Z</time>
      </trkpt>
      <trkpt lat="42.40023" lon="0.03216">
        <ele>962.4</ele>
        <time>2016-07-24T09:07:15Z</time>
      </trkpt>
      <trkpt lat="42.40022" lon="0.03212">
        <ele>962.4</ele>
        <time>2016-07-24T09:07:17Z</time>
      </trkpt>
      <trkpt lat="42.40021" lon="0.03208">
        <ele>962.3</ele>
        <time>2016-07-24T09:07:19Z</time>
      </trkpt>
      <trkpt lat="42.40021" lon="0.03203">
        <ele>962.8</ele>
        <time>2016-07-24T09:07:21Z</time>
      </trkpt>
      <trkpt lat="42.40022" lon="0.03198">
        <ele>963.4</ele>
        <time>2016-07-24T09:07:23Z</time>
      </trkpt>
      <trkpt lat="42.40021" lon="0.03193">
        <ele>963.8</ele>
        <time>2016-07-24T09:07:25Z</time>
      </trkpt>
      <trkpt lat="42.40021" lon="0.03188">
        <ele>964.1</ele>
        <time>2016-07-24T09:07:27Z</time>
      </trkpt>
      <trkpt lat="42.40021" lon="0.03183">
        <ele>964.5</ele>
        <time>2016-07-24T09:07:29Z</time>
      </trkpt>
      <trkpt lat="42.40021" lon="0.03178">
        <ele>964.9</ele>
        <time>2016-07-24T09:07:31Z</time>
      </trkpt>
      <trkpt lat="42.4002" lon="0.03173">
        <ele>965.1</ele>
        <time>2016-07-24T09:07:33Z</time>
      </trkpt>
      <trkpt lat="42.40019" lon="0.03168">
        <ele>965.3</ele>
        <time>2016-07-24T09:07:35Z</time>
      </trkpt>
      <trkpt lat="42.40018" lon="0.03162">
        <ele>965.3</ele>
        <time>2016-07-24T09:07:37Z</time>
      </trkpt>
      <trkpt lat="42.40017" lon="0.03158">
        <ele>965.2</ele>
        <time>2016-07-24T09:07:39Z</time>
      </trkpt>
      <trkpt lat="42.40016" lon="0.03152">
        <ele>965.2</ele>
        <time>2016-07-24T09:07:41Z</time>
      </trkpt>
      <trkpt lat="42.40015" lon="0.03148">
        <ele>965</ele>
        <time>2016-07-24T09:07:43Z</time>
      </trkpt>
      <trkpt lat="42.40013" lon="0.03143">
        <ele>964.9</ele>
        <time>2016-07-24T09:07:45Z</time>
      </trkpt>
      <trkpt lat="42.40013" lon="0.03138">
        <ele>965.3</ele>
        <time>2016-07-24T09:07:47Z</time>
      </trkpt>
      <trkpt lat="42.40012" lon="0.03133">
        <ele>965.5</ele>
        <time>2016-07-24T09:07:49Z</time>
      </trkpt>
      <trkpt lat="42.40012" lon="0.03128">
        <ele>965.9</ele>
        <time>2016-07-24T09:07:51Z</time>
      </trkpt>
      <trkpt lat="42.40012" lon="0.03123">
        <ele>966.2</ele>
        <time>2016-07-24T09:07:53Z</time>
      </trkpt>
      <trkpt lat="42.40012" lon="0.03119">
        <ele>966.4</ele>
        <time>2016-07-24T09:07:55Z</time>
      </trkpt>
      <trkpt lat="42.40011" lon="0.03114">
        <ele>966.5</ele>
        <time>2016-07-24T09:07:57Z</time>
      </trkpt>
      <trkpt lat="42.4001" lon="0.0311">
        <ele>966.5</ele>
        <time>2016-07-24T09:07:59Z</time>
      </trkpt>
      <trkpt lat="42.40009" lon="0.03105">
        <ele>966.4</ele>
        <time>2016-07-24T09:08:01Z</time>
      </trkpt>
      <trkpt lat="42.40008" lon="0.03101">
        <ele>966.2</ele>
        <time>2016-07-24T09:08:03Z</time>
      </trkpt>
      <trkpt lat="42.40007" lon="0.03097">
        <ele>966.1</ele>
        <time>2016-07-24T09:08:05Z</time>
      </trkpt>
      <trkpt lat="42.40006" lon="0.03092">
        <ele>966.2</ele>
        <time>2016-07-24T09:08:07Z</time>
      </trkpt>
      <trkpt lat="42.40005" lon="0.03087">
        <ele>966.3</ele>
        <time>2016-07-24T09:08:09Z</time>
      </trkpt>
      <trkpt lat="42.40005" lon="0.03082">
        <ele>966.5</ele>
        <time>2016-07-24T09:08:11Z</time>
      </trkpt>
      <trkpt lat="42.40004" lon="0.03077">
        <ele>966.6</ele>
        <time>2016-07-24T09:08:13Z</time>
      </trkpt>
      <trkpt lat="42.40003" lon="0.03072">
        <ele>966.8</ele>
        <time>2016-07-24T09:08:15Z</time>
      </trkpt>
      <trkpt lat="42.40002" lon="0.03068">
        <ele>966.9</ele>
        <time>2016-07-24T09:08:17Z</time>
      </trkpt>
      <trkpt lat="42.40002" lon="0.03063">
        <ele>967.1</ele>
        <time>2016-07-24T09:08:19Z</time>
      </trkpt>
      <trkpt lat="42.40001" lon="0.03057">
        <ele>967.5</ele>
        <time>2016-07-24T09:08:21Z</time>
      </trkpt>
      <trkpt lat="42.40001" lon="0.03053">
        <ele>967.9</ele>
        <time>2016-07-24T09:08:23Z</time>
      </trkpt>
      <trkpt lat="42.40002" lon="0.03048">
        <ele>968.4</ele>
        <time>2016-07-24T09:08:25Z</time>
      </trkpt>
      <trkpt lat="42.40002" lon="0.03043">
        <ele>969</ele>
        <time>2016-07-24T09:08:27Z</time>
      </trkpt>
      <trkpt lat="42.40004" lon="0.03039">
        <ele>970.2</ele>
        <time>2016-07-24T09:08:29Z</time>
      </trkpt>
      <trkpt lat="42.40006" lon="0.03034">
        <ele>971.6</ele>
        <time>2016-07-24T09:08:31Z</time>
      </trkpt>
      <trkpt lat="42.40008" lon="0.03031">
        <ele>972.9</ele>
        <time>2016-07-24T09:08:33Z</time>
      </trkpt>
      <trkpt lat="42.4001" lon="0.03026">
        <ele>974.3</ele>
        <time>2016-07-24T09:08:35Z</time>
      </trkpt>
      <trkpt lat="42.40012" lon="0.03021">
        <ele>975.7</ele>
        <time>2016-07-24T09:08:37Z</time>
      </trkpt>
      <trkpt lat="42.40014" lon="0.03017">
        <ele>977.1</ele>
        <time>2016-07-24T09:08:39Z</time>
      </trkpt>
      <trkpt lat="42.40017" lon="0.03012">
        <ele>978.4</ele>
        <time>2016-07-24T09:08:41Z</time>
      </trkpt>
      <trkpt lat="42.40019" lon="0.03007">
        <ele>979.7</ele>
        <time>2016-07-24T09:08:43Z</time>
      </trkpt>
      <trkpt lat="42.40022" lon="0.03003">
        <ele>981</ele>
        <time>2016-07-24T09:08:45Z</time>
      </trkpt>
      <trkpt lat="42.40024" lon="0.02998">
        <ele>982.2</ele>
        <time>2016-07-24T09:08:47Z</time>
      </trkpt>
      <trkpt lat="42.40026" lon="0.02992">
        <ele>983.4</ele>
        <time>2016-07-24T09:08:49Z</time>
      </trkpt>
      <trkpt lat="42.40028" lon="0.02987">
        <ele>984.6</ele>
        <time>2016-07-24T09:08:51Z</time>
      </trkpt>
      <trkpt lat="42.40029" lon="0.02981">
        <ele>985.5</ele>
        <time>2016-07-24T09:08:53Z</time>
      </trkpt>
      <trkpt lat="42.4003" lon="0.02976">
        <ele>986.4</ele>
        <time>2016-07-24T09:08:55Z</time>
      </trkpt>
      <trkpt lat="42.40031" lon="0.0297">
        <ele>987.5</ele>
        <time>2016-07-24T09:08:57Z</time>
      </trkpt>
      <trkpt lat="42.40033" lon="0.02964">
        <ele>988.5</ele>
        <time>2016-07-24T09:08:59Z</time>
      </trkpt>
      <trkpt lat="42.40034" lon="0.02957">
        <ele>989.5</ele>
        <time>2016-07-24T09:09:01Z</time>
      </trkpt>
      <trkpt lat="42.40035" lon="0.0295">
        <ele>990.7</ele>
        <time>2016-07-24T09:09:03Z</time>
      </trkpt>
      <trkpt lat="42.40037" lon="0.02944">
        <ele>991.9</ele>
        <time>2016-07-24T09:09:05Z</time>
      </trkpt>
      <trkpt lat="42.40039" lon="0.02938">
        <ele>993</ele>
        <time>2016-07-24T09:09:07Z</time>
      </trkpt>
      <trkpt lat="42.40042" lon="0.02932">
        <ele>994.2</ele>
        <time>2016-07-24T09:09:09Z</time>
      </trkpt>
      <trkpt lat="42.40043" lon="0.02928">
        <ele>994.6</ele>
        <time>2016-07-24T09:09:10Z</time>
      </trkpt>
      <trkpt lat="42.40044" lon="0.02921">
        <ele>995.5</ele>
        <time>2016-07-24T09:09:12Z</time>
      </trkpt>
      <trkpt lat="42.40044" lon="0.02917">
        <ele>996.1</ele>
        <time>2016-07-24T09:09:13Z</time>
      </trkpt>
      <trkpt lat="42.40043" lon="0.02913">
        <ele>996.8</ele>
        <time>2016-07-24T09:09:14Z</time>
      </trkpt>
      <trkpt lat="42.40043" lon="0.02907">
        <ele>997.9</ele>
        <time>2016-07-24T09:09:16Z</time>
      </trkpt>
      <trkpt lat="42.40043" lon="0.029">
        <ele>998.9</ele>
        <time>2016-07-24T09:09:18Z</time>
      </trkpt>
      <trkpt lat="42.40042" lon="0.02895">
        <ele>999.9</ele>
        <time>2016-07-24T09:09:20Z</time>
      </trkpt>
      <trkpt lat="42.40041" lon="0.02889">
        <ele>1000.9</ele>
        <time>2016-07-24T09:09:22Z</time>
      </trkpt>
      <trkpt lat="42.40041" lon="0.02883">
        <ele>1001.8</ele>
        <time>2016-07-24T09:09:24Z</time>
      </trkpt>
      <trkpt lat="42.4004" lon="0.02877">
        <ele>1002.7</ele>
        <time>2016-07-24T09:09:26Z</time>
      </trkpt>
      <trkpt lat="42.40039" lon="0.02872">
        <ele>1003.4</ele>
        <time>2016-07-24T09:09:28Z</time>
      </trkpt>
      <trkpt lat="42.40038" lon="0.02867">
        <ele>1004.1</ele>
        <time>2016-07-24T09:09:30Z</time>
      </trkpt>
      <trkpt lat="42.40037" lon="0.02862">
        <ele>1004.7</ele>
        <time>2016-07-24T09:09:32Z</time>
      </trkpt>
      <trkpt lat="42.40035" lon="0.02858">
        <ele>1005.4</ele>
        <time>2016-07-24T09:09:34Z</time>
      </trkpt>
      <trkpt lat="42.40033" lon="0.02854">
        <ele>1006</ele>
        <time>2016-07-24T09:09:36Z</time>
      </trkpt>
      <trkpt lat="42.40031" lon="0.02849">
        <ele>1006.7</ele>
        <time>2016-07-24T09:09:38Z</time>
      </trkpt>
      <trkpt lat="42.40029" lon="0.02845">
        <ele>1007.4</ele>
        <time>2016-07-24T09:09:40Z</time>
      </trkpt>
      <trkpt lat="42.40027" lon="0.02841">
        <ele>1008.2</ele>
        <time>2016-07-24T09:09:42Z</time>
      </trkpt>
      <trkpt lat="42.40025" lon="0.02837">
        <ele>1008.8</ele>
        <time>2016-07-24T09:09:44Z</time>
      </trkpt>
      <trkpt lat="42.40022" lon="0.02835">
        <ele>1009.4</ele>
        <time>2016-07-24T09:09:46Z</time>
      </trkpt>
      <trkpt lat="42.40019" lon="0.02832">
        <ele>1009.9</ele>
        <time>2016-07-24T09:09:48Z</time>
      </trkpt>
      <trkpt lat="42.40016" lon="0.0283">
        <ele>1010.4</ele>
        <time>2016-07-24T09:09:50Z</time>
      </trkpt>
      <trkpt lat="42.40013" lon="0.02828">
        <ele>1011.1</ele>
        <time>2016-07-24T09:09:52Z</time>
      </trkpt>
      <trkpt lat="42.4001" lon="0.02826">
        <ele>1011.5</ele>
        <time>2016-07-24T09:09:54Z</time>
      </trkpt>
      <trkpt lat="42.40006" lon="0.02826">
        <ele>1011.9</ele>
        <time>2016-07-24T09:09:56Z</time>
      </trkpt>
      <trkpt lat="42.40003" lon="0.02825">
        <ele>1012.2</ele>
        <time>2016-07-24T09:09:58Z</time>
      </trkpt>
      <trkpt lat="42.39999" lon="0.02825">
        <ele>1012.6</ele>
        <time>2016-07-24T09:10:00Z</time>
      </trkpt>
      <trkpt lat="42.39996" lon="0.02824">
        <ele>1013</ele>
        <time>2016-07-24T09:10:02Z</time>
      </trkpt>
      <trkpt lat="42.39992" lon="0.02823">
        <ele>1013.4</ele>
        <time>2016-07-24T09:10:04Z</time>
      </trkpt>
      <trkpt lat="42.39988" lon="0.02822">
        <ele>1013.9</ele>
        <time>2016-07-24T09:10:06Z</time>
      </trkpt>
      <trkpt lat="42.39985" lon="0.02821">
        <ele>1014.3</ele>
        <time>2016-07-24T09:10:08Z</time>
      </trkpt>
      <trkpt lat="42.39981" lon="0.0282">
        <ele>1014.7</ele>
        <time>2016-07-24T09:10:10Z</time>
      </trkpt>
      <trkpt lat="42.39978" lon="0.02819">
        <ele>1015.3</ele>
        <time>2016-07-24T09:10:12Z</time>
      </trkpt>
      <trkpt lat="42.39975" lon="0.02818">
        <ele>1015.8</ele>
        <time>2016-07-24T09:10:14Z</time>
      </trkpt>
      <trkpt lat="42.39971" lon="0.02818">
        <ele>1016.2</ele>
        <time>2016-07-24T09:10:16Z</time>
      </trkpt>
      <trkpt lat="42.39968" lon="0.02817">
        <ele>1016.6</ele>
        <time>2016-07-24T09:10:18Z</time>
      </trkpt>
      <trkpt lat="42.39964" lon="0.02816">
        <ele>1017.1</ele>
        <time>2016-07-24T09:10:20Z</time>
      </trkpt>
      <trkpt lat="42.3996" lon="0.02815">
        <ele>1017.6</ele>
        <time>2016-07-24T09:10:22Z</time>
      </trkpt>
      <trkpt lat="42.39957" lon="0.02814">
        <ele>1018</ele>
        <time>2016-07-24T09:10:24Z</time>
      </trkpt>
      <trkpt lat="42.39952" lon="0.02813">
        <ele>1018.3</ele>
        <time>2016-07-24T09:10:26Z</time>
      </trkpt>
      <trkpt lat="42.39948" lon="0.02812">
        <ele>1018.6</ele>
        <time>2016-07-24T09:10:28Z</time>
      </trkpt>
      <trkpt lat="42.39942" lon="0.02811">
        <ele>1018.8</ele>
        <time>2016-07-24T09:10:30Z</time>
      </trkpt>
      <trkpt lat="42.39937" lon="0.0281">
        <ele>1018.9</ele>
        <time>2016-07-24T09:10:32Z</time>
      </trkpt>
      <trkpt lat="42.39934" lon="0.0281">
        <ele>1018.9</ele>
        <time>2016-07-24T09:10:33Z</time>
      </trkpt>
      <trkpt lat="42.39931" lon="0.0281">
        <ele>1018.9</ele>
        <time>2016-07-24T09:10:34Z</time>
      </trkpt>
      <trkpt lat="42.39928" lon="0.0281">
        <ele>1018.8</ele>
        <time>2016-07-24T09:10:35Z</time>
      </trkpt>
      <trkpt lat="42.39925" lon="0.02809">
        <ele>1018.8</ele>
        <time>2016-07-24T09:10:36Z</time>
      </trkpt>
      <trkpt lat="42.39922" lon="0.02809">
        <ele>1018.8</ele>
        <time>2016-07-24T09:10:37Z</time>
      </trkpt>
      <trkpt lat="42.39919" lon="0.02809">
        <ele>1018.8</ele>
        <time>2016-07-24T09:10:38Z</time>
      </trkpt>
      <trkpt lat="42.39915" lon="0.02809">
        <ele>1018.8</ele>
        <time>2016-07-24T09:10:39Z</time>
      </trkpt>
      <trkpt lat="42.39912" lon="0.02808">
        <ele>1018.9</ele>
        <time>2016-07-24T09:10:40Z</time>
      </trkpt>
      <trkpt lat="42.3991" lon="0.02807">
        <ele>1019.1</ele>
        <time>2016-07-24T09:10:41Z</time>
      </trkpt>
      <trkpt lat="42.39907" lon="0.02805">
        <ele>1019.4</ele>
        <time>2016-07-24T09:10:42Z</time>
      </trkpt>
      <trkpt lat="42.39904" lon="0.02803">
        <ele>1019.8</ele>
        <time>2016-07-24T09:10:43Z</time>
      </trkpt>
      <trkpt lat="42.39902" lon="0.028">
        <ele>1020.3</ele>
        <time>2016-07-24T09:10:44Z</time>
      </trkpt>
      <trkpt lat="42.399" lon="0.02797">
        <ele>1020.8</ele>
        <time>2016-07-24T09:10:45Z</time>
      </trkpt>
      <trkpt lat="42.39898" lon="0.02794">
        <ele>1021.4</ele>
        <time>2016-07-24T09:10:46Z</time>
      </trkpt>
      <trkpt lat="42.39896" lon="0.02791">
        <ele>1022</ele>
        <time>2016-07-24T09:10:47Z</time>
      </trkpt>
      <trkpt lat="42.39894" lon="0.02787">
        <ele>1022.7</ele>
        <time>2016-07-24T09:10:48Z</time>
      </trkpt>
      <trkpt lat="42.39893" lon="0.02784">
        <ele>1023.5</ele>
        <time>2016-07-24T09:10:49Z</time>
      </trkpt>
      <trkpt lat="42.39892" lon="0.0278">
        <ele>1024.2</ele>
        <time>2016-07-24T09:10:50Z</time>
      </trkpt>
      <trkpt lat="42.3989" lon="0.02777">
        <ele>1024.9</ele>
        <time>2016-07-24T09:10:51Z</time>
      </trkpt>
      <trkpt lat="42.39888" lon="0.02774">
        <ele>1025.6</ele>
        <time>2016-07-24T09:10:52Z</time>
      </trkpt>
      <trkpt lat="42.39885" lon="0.02768">
        <ele>1026.8</ele>
        <time>2016-07-24T09:10:54Z</time>
      </trkpt>
      <trkpt lat="42.39882" lon="0.02764">
        <ele>1027.9</ele>
        <time>2016-07-24T09:10:56Z</time>
      </trkpt>
      <trkpt lat="42.39879" lon="0.02759">
        <ele>1028.8</ele>
        <time>2016-07-24T09:10:58Z</time>
      </trkpt>
      <trkpt lat="42.39876" lon="0.02755">
        <ele>1029.9</ele>
        <time>2016-07-24T09:11:00Z</time>
      </trkpt>
      <trkpt lat="42.39873" lon="0.0275">
        <ele>1031.1</ele>
        <time>2016-07-24T09:11:02Z</time>
      </trkpt>
      <trkpt lat="42.39871" lon="0.02746">
        <ele>1032.2</ele>
        <time>2016-07-24T09:11:04Z</time>
      </trkpt>
      <trkpt lat="42.39868" lon="0.02742">
        <ele>1033.3</ele>
        <time>2016-07-24T09:11:06Z</time>
      </trkpt>
      <trkpt lat="42.39865" lon="0.0274">
        <ele>1034</ele>
        <time>2016-07-24T09:11:08Z</time>
      </trkpt>
      <trkpt lat="42.39862" lon="0.02738">
        <ele>1034.6</ele>
        <time>2016-07-24T09:11:10Z</time>
      </trkpt>
      <trkpt lat="42.39858" lon="0.02737">
        <ele>1035</ele>
        <time>2016-07-24T09:11:13Z</time>
      </trkpt>
      <trkpt lat="42.39855" lon="0.02737">
        <ele>1035.2</ele>
        <time>2016-07-24T09:11:15Z</time>
      </trkpt>
      <trkpt lat="42.39852" lon="0.02736">
        <ele>1035.5</ele>
        <time>2016-07-24T09:11:17Z</time>
      </trkpt>
      <trkpt lat="42.39849" lon="0.02735">
        <ele>1035.8</ele>
        <time>2016-07-24T09:11:19Z</time>
      </trkpt>
      <trkpt lat="42.39846" lon="0.02734">
        <ele>1036.2</ele>
        <time>2016-07-24T09:11:21Z</time>
      </trkpt>
      <trkpt lat="42.39843" lon="0.02733">
        <ele>1036.6</ele>
        <time>2016-07-24T09:11:23Z</time>
      </trkpt>
      <trkpt lat="42.3984" lon="0.02732">
        <ele>1037</ele>
        <time>2016-07-24T09:11:25Z</time>
      </trkpt>
      <trkpt lat="42.39836" lon="0.02731">
        <ele>1037.3</ele>
        <time>2016-07-24T09:11:27Z</time>
      </trkpt>
      <trkpt lat="42.39832" lon="0.02729">
        <ele>1037.8</ele>
        <time>2016-07-24T09:11:29Z</time>
      </trkpt>
      <trkpt lat="42.39829" lon="0.02728">
        <ele>1038.1</ele>
        <time>2016-07-24T09:11:31Z</time>
      </trkpt>
      <trkpt lat="42.39827" lon="0.02727">
        <ele>1038.5</ele>
        <time>2016-07-24T09:11:33Z</time>
      </trkpt>
      <trkpt lat="42.39824" lon="0.02726">
        <ele>1038.9</ele>
        <time>2016-07-24T09:11:35Z</time>
      </trkpt>
      <trkpt lat="42.39821" lon="0.02725">
        <ele>1039</ele>
        <time>2016-07-24T09:11:37Z</time>
      </trkpt>
      <trkpt lat="42.39817" lon="0.02726">
        <ele>1039.1</ele>
        <time>2016-07-24T09:11:39Z</time>
      </trkpt>
      <trkpt lat="42.39814" lon="0.02725">
        <ele>1039.3</ele>
        <time>2016-07-24T09:11:41Z</time>
      </trkpt>
      <trkpt lat="42.39811" lon="0.02724">
        <ele>1039.6</ele>
        <time>2016-07-24T09:11:43Z</time>
      </trkpt>
      <trkpt lat="42.39809" lon="0.02724">
        <ele>1039.8</ele>
        <time>2016-07-24T09:11:45Z</time>
      </trkpt>
      <trkpt lat="42.39806" lon="0.02723">
        <ele>1040</ele>
        <time>2016-07-24T09:11:47Z</time>
      </trkpt>
      <trkpt lat="42.39802" lon="0.02723">
        <ele>1040.2</ele>
        <time>2016-07-24T09:11:49Z</time>
      </trkpt>
      <trkpt lat="42.39799" lon="0.02721">
        <ele>1040.6</ele>
        <time>2016-07-24T09:11:51Z</time>
      </trkpt>
      <trkpt lat="42.39795" lon="0.02719">
        <ele>1041</ele>
        <time>2016-07-24T09:11:54Z</time>
      </trkpt>
      <trkpt lat="42.39792" lon="0.02718">
        <ele>1041.3</ele>
        <time>2016-07-24T09:11:56Z</time>
      </trkpt>
      <trkpt lat="42.39789" lon="0.02717">
        <ele>1042.3</ele>
        <time>2016-07-24T09:11:58Z</time>
      </trkpt>
      <trkpt lat="42.39786" lon="0.02716">
        <ele>1043.3</ele>
        <time>2016-07-24T09:12:00Z</time>
      </trkpt>
      <trkpt lat="42.39784" lon="0.02714">
        <ele>1044.4</ele>
        <time>2016-07-24T09:12:02Z</time>
      </trkpt>
      <trkpt lat="42.3978" lon="0.02713">
        <ele>1045.7</ele>
        <time>2016-07-24T09:12:05Z</time>
      </trkpt>
      <trkpt lat="42.39776" lon="0.02712">
        <ele>1047.1</ele>
        <time>2016-07-24T09:12:08Z</time>
      </trkpt>
      <trkpt lat="42.39773" lon="0.02711">
        <ele>1048.1</ele>
        <time>2016-07-24T09:12:10Z</time>
      </trkpt>
      <trkpt lat="42.3977" lon="0.0271">
        <ele>1049.2</ele>
        <time>2016-07-24T09:12:12Z</time>
      </trkpt>
      <trkpt lat="42.39767" lon="0.0271">
        <ele>1050.2</ele>
        <time>2016-07-24T09:12:14Z</time>
      </trkpt>
      <trkpt lat="42.39764" lon="0.02711">
        <ele>1051</ele>
        <time>2016-07-24T09:12:16Z</time>
      </trkpt>
      <trkpt lat="42.3976" lon="0.02711">
        <ele>1052</ele>
        <time>2016-07-24T09:12:18Z</time>
      </trkpt>
      <trkpt lat="42.39758" lon="0.0271">
        <ele>1052.9</ele>
        <time>2016-07-24T09:12:20Z</time>
      </trkpt>
      <trkpt lat="42.39755" lon="0.02708">
        <ele>1054</ele>
        <time>2016-07-24T09:12:22Z</time>
      </trkpt>
      <trkpt lat="42.39752" lon="0.02707">
        <ele>1055.3</ele>
        <time>2016-07-24T09:12:24Z</time>
      </trkpt>
      <trkpt lat="42.39749" lon="0.02707">
        <ele>1056.4</ele>
        <time>2016-07-24T09:12:26Z</time>
      </trkpt>
      <trkpt lat="42.39746" lon="0.02707">
        <ele>1057.1</ele>
        <time>2016-07-24T09:12:28Z</time>
      </trkpt>
      <trkpt lat="42.39743" lon="0.02707">
        <ele>1058.1</ele>
        <time>2016-07-24T09:12:30Z</time>
      </trkpt>
      <trkpt lat="42.3974" lon="0.02706">
        <ele>1059.1</ele>
        <time>2016-07-24T09:12:32Z</time>
      </trkpt>
      <trkpt lat="42.39736" lon="0.02706">
        <ele>1060.1</ele>
        <time>2016-07-24T09:12:34Z</time>
      </trkpt>
      <trkpt lat="42.39733" lon="0.02706">
        <ele>1061.2</ele>
        <time>2016-07-24T09:12:36Z</time>
      </trkpt>
      <trkpt lat="42.3973" lon="0.02704">
        <ele>1062.4</ele>
        <time>2016-07-24T09:12:38Z</time>
      </trkpt>
      <trkpt lat="42.39729" lon="0.02701">
        <ele>1063.7</ele>
        <time>2016-07-24T09:12:40Z</time>
      </trkpt>
      <trkpt lat="42.3973" lon="0.02696">
        <ele>1064.7</ele>
        <time>2016-07-24T09:12:42Z</time>
      </trkpt>
      <trkpt lat="42.39731" lon="0.02691">
        <ele>1065.4</ele>
        <time>2016-07-24T09:12:44Z</time>
      </trkpt>
      <trkpt lat="42.39735" lon="0.02688">
        <ele>1065.2</ele>
        <time>2016-07-24T09:12:46Z</time>
      </trkpt>
      <trkpt lat="42.3974" lon="0.02686">
        <ele>1064.3</ele>
        <time>2016-07-24T09:12:48Z</time>
      </trkpt>
      <trkpt lat="42.39743" lon="0.02686">
        <ele>1063.3</ele>
        <time>2016-07-24T09:12:50Z</time>
      </trkpt>
      <trkpt lat="42.39747" lon="0.02687">
        <ele>1062.3</ele>
        <time>2016-07-24T09:12:52Z</time>
      </trkpt>
      <trkpt lat="42.39751" lon="0.02686">
        <ele>1061.1</ele>
        <time>2016-07-24T09:12:54Z</time>
      </trkpt>
      <trkpt lat="42.39754" lon="0.02686">
        <ele>1060.5</ele>
        <time>2016-07-24T09:12:55Z</time>
      </trkpt>
      <trkpt lat="42.39757" lon="0.02685">
        <ele>1060</ele>
        <time>2016-07-24T09:12:56Z</time>
      </trkpt>
      <trkpt lat="42.39759" lon="0.02684">
        <ele>1059.5</ele>
        <time>2016-07-24T09:12:57Z</time>
      </trkpt>
      <trkpt lat="42.39762" lon="0.02683">
        <ele>1059.1</ele>
        <time>2016-07-24T09:12:58Z</time>
      </trkpt>
      <trkpt lat="42.39765" lon="0.02682">
        <ele>1058.7</ele>
        <time>2016-07-24T09:12:59Z</time>
      </trkpt>
      <trkpt lat="42.39768" lon="0.02681">
        <ele>1058.2</ele>
        <time>2016-07-24T09:13:00Z</time>
      </trkpt>
      <trkpt lat="42.39771" lon="0.02679">
        <ele>1057.9</ele>
        <time>2016-07-24T09:13:01Z</time>
      </trkpt>
      <trkpt lat="42.39774" lon="0.02678">
        <ele>1057.6</ele>
        <time>2016-07-24T09:13:02Z</time>
      </trkpt>
      <trkpt lat="42.39777" lon="0.02676">
        <ele>1057.4</ele>
        <time>2016-07-24T09:13:03Z</time>
      </trkpt>
      <trkpt lat="42.3978" lon="0.02673">
        <ele>1057.3</ele>
        <time>2016-07-24T09:13:04Z</time>
      </trkpt>
      <trkpt lat="42.39783" lon="0.02671">
        <ele>1057.2</ele>
        <time>2016-07-24T09:13:05Z</time>
      </trkpt>
      <trkpt lat="42.39786" lon="0.0267">
        <ele>1057</ele>
        <time>2016-07-24T09:13:06Z</time>
      </trkpt>
      <trkpt lat="42.39788" lon="0.02669">
        <ele>1056.7</ele>
        <time>2016-07-24T09:13:07Z</time>
      </trkpt>
      <trkpt lat="42.39791" lon="0.02668">
        <ele>1056.1</ele>
        <time>2016-07-24T09:13:08Z</time>
      </trkpt>
      <trkpt lat="42.39794" lon="0.02668">
        <ele>1056</ele>
        <time>2016-07-24T09:13:09Z</time>
      </trkpt>
      <trkpt lat="42.39797" lon="0.02668">
        <ele>1055.9</ele>
        <time>2016-07-24T09:13:10Z</time>
      </trkpt>
      <trkpt lat="42.39802" lon="0.02669">
        <ele>1055.7</ele>
        <time>2016-07-24T09:13:12Z</time>
      </trkpt>
      <trkpt lat="42.39806" lon="0.02669">
        <ele>1055.3</ele>
        <time>2016-07-24T09:13:14Z</time>
      </trkpt>
      <trkpt lat="42.3981" lon="0.02669">
        <ele>1055.2</ele>
        <time>2016-07-24T09:13:16Z</time>
      </trkpt>
      <trkpt lat="42.39813" lon="0.02668">
        <ele>1055.6</ele>
        <time>2016-07-24T09:13:18Z</time>
      </trkpt>
      <trkpt lat="42.39816" lon="0.02665">
        <ele>1056.4</ele>
        <time>2016-07-24T09:13:20Z</time>
      </trkpt>
      <trkpt lat="42.39818" lon="0.02662">
        <ele>1057.6</ele>
        <time>2016-07-24T09:13:22Z</time>
      </trkpt>
      <trkpt lat="42.39816" lon="0.02657">
        <ele>1059.1</ele>
        <time>2016-07-24T09:13:24Z</time>
      </trkpt>
      <trkpt lat="42.39813" lon="0.02654">
        <ele>1060.3</ele>
        <time>2016-07-24T09:13:26Z</time>
      </trkpt>
      <trkpt lat="42.39808" lon="0.02652">
        <ele>1061</ele>
        <time>2016-07-24T09:13:28Z</time>
      </trkpt>
      <trkpt lat="42.39804" lon="0.0265">
        <ele>1061.8</ele>
        <time>2016-07-24T09:13:30Z</time>
      </trkpt>
      <trkpt lat="42.398" lon="0.02647">
        <ele>1062.6</ele>
        <time>2016-07-24T09:13:32Z</time>
      </trkpt>
      <trkpt lat="42.39796" lon="0.02646">
        <ele>1063.2</ele>
        <time>2016-07-24T09:13:34Z</time>
      </trkpt>
      <trkpt lat="42.39792" lon="0.02646">
        <ele>1063.3</ele>
        <time>2016-07-24T09:13:36Z</time>
      </trkpt>
      <trkpt lat="42.39787" lon="0.02647">
        <ele>1063.9</ele>
        <time>2016-07-24T09:13:38Z</time>
      </trkpt>
      <trkpt lat="42.39783" lon="0.02648">
        <ele>1064.3</ele>
        <time>2016-07-24T09:13:40Z</time>
      </trkpt>
      <trkpt lat="42.39779" lon="0.02649">
        <ele>1065</ele>
        <time>2016-07-24T09:13:42Z</time>
      </trkpt>
      <trkpt lat="42.39775" lon="0.0265">
        <ele>1065.9</ele>
        <time>2016-07-24T09:13:44Z</time>
      </trkpt>
      <trkpt lat="42.3977" lon="0.02649">
        <ele>1066.9</ele>
        <time>2016-07-24T09:13:46Z</time>
      </trkpt>
      <trkpt lat="42.39767" lon="0.02649">
        <ele>1067.8</ele>
        <time>2016-07-24T09:13:48Z</time>
      </trkpt>
      <trkpt lat="42.39763" lon="0.02648">
        <ele>1068.8</ele>
        <time>2016-07-24T09:13:50Z</time>
      </trkpt>
      <trkpt lat="42.39759" lon="0.02647">
        <ele>1070</ele>
        <time>2016-07-24T09:13:52Z</time>
      </trkpt>
      <trkpt lat="42.39756" lon="0.02646">
        <ele>1071.2</ele>
        <time>2016-07-24T09:13:54Z</time>
      </trkpt>
      <trkpt lat="42.39752" lon="0.02645">
        <ele>1072.3</ele>
        <time>2016-07-24T09:13:56Z</time>
      </trkpt>
      <trkpt lat="42.39748" lon="0.02643">
        <ele>1073.5</ele>
        <time>2016-07-24T09:13:58Z</time>
      </trkpt>
      <trkpt lat="42.39746" lon="0.02641">
        <ele>1074.7</ele>
        <time>2016-07-24T09:14:00Z</time>
      </trkpt>
      <trkpt lat="42.39743" lon="0.02638">
        <ele>1075.9</ele>
        <time>2016-07-24T09:14:02Z</time>
      </trkpt>
      <trkpt lat="42.39742" lon="0.02635">
        <ele>1077.1</ele>
        <time>2016-07-24T09:14:04Z</time>
      </trkpt>
      <trkpt lat="42.39743" lon="0.0263">
        <ele>1078.1</ele>
        <time>2016-07-24T09:14:07Z</time>
      </trkpt>
      <trkpt lat="42.39746" lon="0.02628">
        <ele>1077.9</ele>
        <time>2016-07-24T09:14:09Z</time>
      </trkpt>
      <trkpt lat="42.3975" lon="0.02628">
        <ele>1077.1</ele>
        <time>2016-07-24T09:14:11Z</time>
      </trkpt>
      <trkpt lat="42.39755" lon="0.02628">
        <ele>1076.2</ele>
        <time>2016-07-24T09:14:13Z</time>
      </trkpt>
      <trkpt lat="42.39759" lon="0.02629">
        <ele>1075.2</ele>
        <time>2016-07-24T09:14:15Z</time>
      </trkpt>
      <trkpt lat="42.39762" lon="0.02631">
        <ele>1074</ele>
        <time>2016-07-24T09:14:17Z</time>
      </trkpt>
      <trkpt lat="42.39766" lon="0.02632">
        <ele>1072.8</ele>
        <time>2016-07-24T09:14:19Z</time>
      </trkpt>
      <trkpt lat="42.3977" lon="0.02633">
        <ele>1071.8</ele>
        <time>2016-07-24T09:14:21Z</time>
      </trkpt>
      <trkpt lat="42.39774" lon="0.02633">
        <ele>1071.2</ele>
        <time>2016-07-24T09:14:23Z</time>
      </trkpt>
      <trkpt lat="42.39778" lon="0.02632">
        <ele>1070.6</ele>
        <time>2016-07-24T09:14:25Z</time>
      </trkpt>
      <trkpt lat="42.39781" lon="0.02631">
        <ele>1070.2</ele>
        <time>2016-07-24T09:14:27Z</time>
      </trkpt>
      <trkpt lat="42.39785" lon="0.02629">
        <ele>1070</ele>
        <time>2016-07-24T09:14:29Z</time>
      </trkpt>
      <trkpt lat="42.39789" lon="0.02627">
        <ele>1070.1</ele>
        <time>2016-07-24T09:14:31Z</time>
      </trkpt>
      <trkpt lat="42.39792" lon="0.02624">
        <ele>1070.2</ele>
        <time>2016-07-24T09:14:33Z</time>
      </trkpt>
      <trkpt lat="42.39794" lon="0.02622">
        <ele>1070.7</ele>
        <time>2016-07-24T09:14:35Z</time>
      </trkpt>
      <trkpt lat="42.39797" lon="0.02619">
        <ele>1071.2</ele>
        <time>2016-07-24T09:14:37Z</time>
      </trkpt>
      <trkpt lat="42.398" lon="0.02617">
        <ele>1071.6</ele>
        <time>2016-07-24T09:14:39Z</time>
      </trkpt>
      <trkpt lat="42.39803" lon="0.02615">
        <ele>1072</ele>
        <time>2016-07-24T09:14:41Z</time>
      </trkpt>
      <trkpt lat="42.39806" lon="0.02612">
        <ele>1072.6</ele>
        <time>2016-07-24T09:14:44Z</time>
      </trkpt>
      <trkpt lat="42.39809" lon="0.02611">
        <ele>1072.9</ele>
        <time>2016-07-24T09:14:46Z</time>
      </trkpt>
      <trkpt lat="42.39812" lon="0.0261">
        <ele>1073.1</ele>
        <time>2016-07-24T09:14:48Z</time>
      </trkpt>
      <trkpt lat="42.39815" lon="0.02608">
        <ele>1073.3</ele>
        <time>2016-07-24T09:14:51Z</time>
      </trkpt>
      <trkpt lat="42.39819" lon="0.02608">
        <ele>1073.3</ele>
        <time>2016-07-24T09:14:54Z</time>
      </trkpt>
      <trkpt lat="42.39822" lon="0.02606">
        <ele>1073.7</ele>
        <time>2016-07-24T09:14:57Z</time>
      </trkpt>
      <trkpt lat="42.39826" lon="0.02603">
        <ele>1074.2</ele>
        <time>2016-07-24T09:15:00Z</time>
      </trkpt>
      <trkpt lat="42.39828" lon="0.02602">
        <ele>1074.4</ele>
        <time>2016-07-24T09:15:02Z</time>
      </trkpt>
      <trkpt lat="42.39831" lon="0.02602">
        <ele>1074.4</ele>
        <time>2016-07-24T09:15:04Z</time>
      </trkpt>
      <trkpt lat="42.39834" lon="0.026">
        <ele>1074.7</ele>
        <time>2016-07-24T09:15:06Z</time>
      </trkpt>
      <trkpt lat="42.39837" lon="0.02598">
        <ele>1075.2</ele>
        <time>2016-07-24T09:15:08Z</time>
      </trkpt>
      <trkpt lat="42.39839" lon="0.02596">
        <ele>1075.7</ele>
        <time>2016-07-24T09:15:10Z</time>
      </trkpt>
      <trkpt lat="42.39842" lon="0.02594">
        <ele>1076.1</ele>
        <time>2016-07-24T09:15:12Z</time>
      </trkpt>
      <trkpt lat="42.39845" lon="0.02592">
        <ele>1076.6</ele>
        <time>2016-07-24T09:15:14Z</time>
      </trkpt>
      <trkpt lat="42.39847" lon="0.0259">
        <ele>1077</ele>
        <time>2016-07-24T09:15:16Z</time>
      </trkpt>
      <trkpt lat="42.3985" lon="0.02588">
        <ele>1077.3</ele>
        <time>2016-07-24T09:15:18Z</time>
      </trkpt>
      <trkpt lat="42.39853" lon="0.02587">
        <ele>1077.6</ele>
        <time>2016-07-24T09:15:20Z</time>
      </trkpt>
      <trkpt lat="42.39856" lon="0.02585">
        <ele>1078</ele>
        <time>2016-07-24T09:15:22Z</time>
      </trkpt>
      <trkpt lat="42.39858" lon="0.02583">
        <ele>1078.4</ele>
        <time>2016-07-24T09:15:24Z</time>
      </trkpt>
      <trkpt lat="42.39861" lon="0.02582">
        <ele>1078.7</ele>
        <time>2016-07-24T09:15:26Z</time>
      </trkpt>
      <trkpt lat="42.39864" lon="0.0258">
        <ele>1079.1</ele>
        <time>2016-07-24T09:15:28Z</time>
      </trkpt>
      <trkpt lat="42.39866" lon="0.02578">
        <ele>1079.4</ele>
        <time>2016-07-24T09:15:30Z</time>
      </trkpt>
      <trkpt lat="42.39869" lon="0.02576">
        <ele>1079.8</ele>
        <time>2016-07-24T09:15:32Z</time>
      </trkpt>
      <trkpt lat="42.39872" lon="0.02574">
        <ele>1080.2</ele>
        <time>2016-07-24T09:15:34Z</time>
      </trkpt>
      <trkpt lat="42.39874" lon="0.02573">
        <ele>1080.6</ele>
        <time>2016-07-24T09:15:36Z</time>
      </trkpt>
      <trkpt lat="42.39877" lon="0.02571">
        <ele>1080.9</ele>
        <time>2016-07-24T09:15:38Z</time>
      </trkpt>
      <trkpt lat="42.3988" lon="0.02569">
        <ele>1081.1</ele>
        <time>2016-07-24T09:15:40Z</time>
      </trkpt>
      <trkpt lat="42.39882" lon="0.02566">
        <ele>1081.5</ele>
        <time>2016-07-24T09:15:42Z</time>
      </trkpt>
      <trkpt lat="42.39885" lon="0.02564">
        <ele>1081.7</ele>
        <time>2016-07-24T09:15:44Z</time>
      </trkpt>
      <trkpt lat="42.39887" lon="0.02562">
        <ele>1082</ele>
        <time>2016-07-24T09:15:46Z</time>
      </trkpt>
      <trkpt lat="42.3989" lon="0.02561">
        <ele>1082.1</ele>
        <time>2016-07-24T09:15:48Z</time>
      </trkpt>
      <trkpt lat="42.39892" lon="0.02559">
        <ele>1082.4</ele>
        <time>2016-07-24T09:15:50Z</time>
      </trkpt>
      <trkpt lat="42.39895" lon="0.02557">
        <ele>1082.7</ele>
        <time>2016-07-24T09:15:52Z</time>
      </trkpt>
      <trkpt lat="42.39897" lon="0.02554">
        <ele>1083.2</ele>
        <time>2016-07-24T09:15:54Z</time>
      </trkpt>
      <trkpt lat="42.39899" lon="0.02551">
        <ele>1083.6</ele>
        <time>2016-07-24T09:15:56Z</time>
      </trkpt>
      <trkpt lat="42.39902" lon="0.02549">
        <ele>1084</ele>
        <time>2016-07-24T09:15:58Z</time>
      </trkpt>
      <trkpt lat="42.39905" lon="0.02547">
        <ele>1084.3</ele>
        <time>2016-07-24T09:16:00Z</time>
      </trkpt>
      <trkpt lat="42.39907" lon="0.02545">
        <ele>1084.6</ele>
        <time>2016-07-24T09:16:02Z</time>
      </trkpt>
      <trkpt lat="42.39909" lon="0.02542">
        <ele>1085</ele>
        <time>2016-07-24T09:16:04Z</time>
      </trkpt>
      <trkpt lat="42.39912" lon="0.0254">
        <ele>1084.9</ele>
        <time>2016-07-24T09:16:06Z</time>
      </trkpt>
      <trkpt lat="42.39914" lon="0.02538">
        <ele>1084.6</ele>
        <time>2016-07-24T09:16:08Z</time>
      </trkpt>
      <trkpt lat="42.39916" lon="0.02536">
        <ele>1084.4</ele>
        <time>2016-07-24T09:16:10Z</time>
      </trkpt>
      <trkpt lat="42.39919" lon="0.02534">
        <ele>1084.2</ele>
        <time>2016-07-24T09:16:12Z</time>
      </trkpt>
      <trkpt lat="42.39921" lon="0.02531">
        <ele>1084</ele>
        <time>2016-07-24T09:16:14Z</time>
      </trkpt>
      <trkpt lat="42.39923" lon="0.02529">
        <ele>1083.7</ele>
        <time>2016-07-24T09:16:16Z</time>
      </trkpt>
      <trkpt lat="42.39925" lon="0.02527">
        <ele>1083.6</ele>
        <time>2016-07-24T09:16:18Z</time>
      </trkpt>
      <trkpt lat="42.39927" lon="0.02524">
        <ele>1083.3</ele>
        <time>2016-07-24T09:16:20Z</time>
      </trkpt>
      <trkpt lat="42.3993" lon="0.02522">
        <ele>1083.1</ele>
        <time>2016-07-24T09:16:22Z</time>
      </trkpt>
      <trkpt lat="42.39933" lon="0.0252">
        <ele>1082.9</ele>
        <time>2016-07-24T09:16:24Z</time>
      </trkpt>
      <trkpt lat="42.39935" lon="0.02518">
        <ele>1082.8</ele>
        <time>2016-07-24T09:16:26Z</time>
      </trkpt>
      <trkpt lat="42.39938" lon="0.02516">
        <ele>1082.6</ele>
        <time>2016-07-24T09:16:28Z</time>
      </trkpt>
      <trkpt lat="42.39941" lon="0.02513">
        <ele>1082.4</ele>
        <time>2016-07-24T09:16:30Z</time>
      </trkpt>
      <trkpt lat="42.39943" lon="0.02511">
        <ele>1082.2</ele>
        <time>2016-07-24T09:16:32Z</time>
      </trkpt>
      <trkpt lat="42.39946" lon="0.02509">
        <ele>1082.1</ele>
        <time>2016-07-24T09:16:34Z</time>
      </trkpt>
      <trkpt lat="42.3995" lon="0.02506">
        <ele>1081.9</ele>
        <time>2016-07-24T09:16:36Z</time>
      </trkpt>
      <trkpt lat="42.39953" lon="0.02504">
        <ele>1081.7</ele>
        <time>2016-07-24T09:16:38Z</time>
      </trkpt>
      <trkpt lat="42.39956" lon="0.02502">
        <ele>1081.6</ele>
        <time>2016-07-24T09:16:40Z</time>
      </trkpt>
      <trkpt lat="42.39959" lon="0.025">
        <ele>1081.3</ele>
        <time>2016-07-24T09:16:42Z</time>
      </trkpt>
      <trkpt lat="42.39963" lon="0.02498">
        <ele>1080.8</ele>
        <time>2016-07-24T09:16:44Z</time>
      </trkpt>
      <trkpt lat="42.39966" lon="0.02497">
        <ele>1080.3</ele>
        <time>2016-07-24T09:16:46Z</time>
      </trkpt>
      <trkpt lat="42.3997" lon="0.02495">
        <ele>1079.8</ele>
        <time>2016-07-24T09:16:48Z</time>
      </trkpt>
      <trkpt lat="42.39973" lon="0.02493">
        <ele>1079.4</ele>
        <time>2016-07-24T09:16:50Z</time>
      </trkpt>
      <trkpt lat="42.39975" lon="0.0249">
        <ele>1079.1</ele>
        <time>2016-07-24T09:16:52Z</time>
      </trkpt>
      <trkpt lat="42.39977" lon="0.02487">
        <ele>1078.9</ele>
        <time>2016-07-24T09:16:54Z</time>
      </trkpt>
      <trkpt lat="42.39979" lon="0.02483">
        <ele>1078.8</ele>
        <time>2016-07-24T09:16:56Z</time>
      </trkpt>
      <trkpt lat="42.39979" lon="0.02479">
        <ele>1078.9</ele>
        <time>2016-07-24T09:16:58Z</time>
      </trkpt>
      <trkpt lat="42.3998" lon="0.02474">
        <ele>1079</ele>
        <time>2016-07-24T09:17:00Z</time>
      </trkpt>
      <trkpt lat="42.39979" lon="0.02469">
        <ele>1079.3</ele>
        <time>2016-07-24T09:17:02Z</time>
      </trkpt>
      <trkpt lat="42.39977" lon="0.02465">
        <ele>1079.6</ele>
        <time>2016-07-24T09:17:04Z</time>
      </trkpt>
      <trkpt lat="42.39974" lon="0.02461">
        <ele>1080</ele>
        <time>2016-07-24T09:17:06Z</time>
      </trkpt>
      <trkpt lat="42.39971" lon="0.02457">
        <ele>1080.4</ele>
        <time>2016-07-24T09:17:08Z</time>
      </trkpt>
      <trkpt lat="42.39969" lon="0.02454">
        <ele>1080.4</ele>
        <time>2016-07-24T09:17:10Z</time>
      </trkpt>
      <trkpt lat="42.39966" lon="0.02452">
        <ele>1080.6</ele>
        <time>2016-07-24T09:17:12Z</time>
      </trkpt>
      <trkpt lat="42.39963" lon="0.0245">
        <ele>1080.8</ele>
        <time>2016-07-24T09:17:14Z</time>
      </trkpt>
      <trkpt lat="42.39959" lon="0.02449">
        <ele>1081.1</ele>
        <time>2016-07-24T09:17:16Z</time>
      </trkpt>
      <trkpt lat="42.39957" lon="0.02447">
        <ele>1081.1</ele>
        <time>2016-07-24T09:17:18Z</time>
      </trkpt>
      <trkpt lat="42.39954" lon="0.02446">
        <ele>1081.1</ele>
        <time>2016-07-24T09:17:20Z</time>
      </trkpt>
      <trkpt lat="42.39951" lon="0.02445">
        <ele>1081</ele>
        <time>2016-07-24T09:17:22Z</time>
      </trkpt>
      <trkpt lat="42.39948" lon="0.02444">
        <ele>1081</ele>
        <time>2016-07-24T09:17:24Z</time>
      </trkpt>
      <trkpt lat="42.39944" lon="0.02443">
        <ele>1081</ele>
        <time>2016-07-24T09:17:26Z</time>
      </trkpt>
      <trkpt lat="42.39941" lon="0.02442">
        <ele>1081</ele>
        <time>2016-07-24T09:17:28Z</time>
      </trkpt>
      <trkpt lat="42.39938" lon="0.02441">
        <ele>1081</ele>
        <time>2016-07-24T09:17:30Z</time>
      </trkpt>
      <trkpt lat="42.39934" lon="0.0244">
        <ele>1081</ele>
        <time>2016-07-24T09:17:32Z</time>
      </trkpt>
      <trkpt lat="42.3993" lon="0.02439">
        <ele>1081</ele>
        <time>2016-07-24T09:17:34Z</time>
      </trkpt>
      <trkpt lat="42.39925" lon="0.02439">
        <ele>1081.1</ele>
        <time>2016-07-24T09:17:36Z</time>
      </trkpt>
      <trkpt lat="42.39921" lon="0.0244">
        <ele>1081.3</ele>
        <time>2016-07-24T09:17:38Z</time>
      </trkpt>
      <trkpt lat="42.39916" lon="0.02441">
        <ele>1081.5</ele>
        <time>2016-07-24T09:17:40Z</time>
      </trkpt>
      <trkpt lat="42.39913" lon="0.02444">
        <ele>1081.7</ele>
        <time>2016-07-24T09:17:42Z</time>
      </trkpt>
      <trkpt lat="42.3991" lon="0.02447">
        <ele>1081.9</ele>
        <time>2016-07-24T09:17:45Z</time>
      </trkpt>
      <trkpt lat="42.39913" lon="0.02445">
        <ele>1081.8</ele>
        <time>2016-07-24T09:17:59Z</time>
      </trkpt>
      <trkpt lat="42.39916" lon="0.02444">
        <ele>1081.7</ele>
        <time>2016-07-24T09:18:22Z</time>
      </trkpt>
      <trkpt lat="42.39919" lon="0.02443">
        <ele>1081.5</ele>
        <time>2016-07-24T09:18:46Z</time>
      </trkpt>
      <trkpt lat="42.39926" lon="0.02444">
        <ele>1081.5</ele>
        <time>2016-07-24T09:19:12Z</time>
      </trkpt>
      <trkpt lat="42.39928" lon="0.02446">
        <ele>1081.6</ele>
        <time>2016-07-24T09:19:23Z</time>
      </trkpt>
      <trkpt lat="42.39931" lon="0.02447">
        <ele>1081.6</ele>
        <time>2016-07-24T09:19:30Z</time>
      </trkpt>
      <trkpt lat="42.39935" lon="0.0245">
        <ele>1081.7</ele>
        <time>2016-07-24T09:19:34Z</time>
      </trkpt>
      <trkpt lat="42.39936" lon="0.02449">
        <ele>1081.6</ele>
        <time>2016-07-24T09:20:22Z</time>
      </trkpt>
      <trkpt lat="42.39939" lon="0.02447">
        <ele>1081.4</ele>
        <time>2016-07-24T09:20:25Z</time>
      </trkpt>
      <trkpt lat="42.39942" lon="0.02445">
        <ele>1081.2</ele>
        <time>2016-07-24T09:20:30Z</time>
      </trkpt>
      <trkpt lat="42.39945" lon="0.02447">
        <ele>1081.3</ele>
        <time>2016-07-24T09:20:34Z</time>
      </trkpt>
      <trkpt lat="42.39948" lon="0.02444">
        <ele>1081</ele>
        <time>2016-07-24T09:20:39Z</time>
      </trkpt>
      <trkpt lat="42.39951" lon="0.02443">
        <ele>1080.9</ele>
        <time>2016-07-24T09:20:51Z</time>
      </trkpt>
      <trkpt lat="42.39948" lon="0.02442">
        <ele>1080.9</ele>
        <time>2016-07-24T09:20:57Z</time>
      </trkpt>
      <trkpt lat="42.39946" lon="0.02441">
        <ele>1080.8</ele>
        <time>2016-07-24T09:21:01Z</time>
      </trkpt>
      <trkpt lat="42.39942" lon="0.02441">
        <ele>1080.9</ele>
        <time>2016-07-24T09:21:04Z</time>
      </trkpt>
      <trkpt lat="42.39937" lon="0.02441">
        <ele>1081</ele>
        <time>2016-07-24T09:23:29Z</time>
      </trkpt>
      <trkpt lat="42.39934" lon="0.02442">
        <ele>1081.1</ele>
        <time>2016-07-24T09:23:31Z</time>
      </trkpt>
      <trkpt lat="42.39931" lon="0.02443">
        <ele>1081.2</ele>
        <time>2016-07-24T09:23:42Z</time>
      </trkpt>
      <trkpt lat="42.39928" lon="0.02443">
        <ele>1081.3</ele>
        <time>2016-07-24T09:23:46Z</time>
      </trkpt>
      <trkpt lat="42.39925" lon="0.02445">
        <ele>1081.6</ele>
        <time>2016-07-24T09:23:50Z</time>
      </trkpt>
      <trkpt lat="42.39922" lon="0.02446">
        <ele>1081.7</ele>
        <time>2016-07-24T09:23:55Z</time>
      </trkpt>
      <trkpt lat="42.39919" lon="0.02446">
        <ele>1081.7</ele>
        <time>2016-07-24T09:24:00Z</time>
      </trkpt>
      <trkpt lat="42.39916" lon="0.02445">
        <ele>1081.7</ele>
        <time>2016-07-24T09:24:28Z</time>
      </trkpt>
      <trkpt lat="42.39913" lon="0.02446">
        <ele>1081.8</ele>
        <time>2016-07-24T09:24:33Z</time>
      </trkpt>
      <trkpt lat="42.39916" lon="0.02445">
        <ele>1081.7</ele>
        <time>2016-07-24T09:24:48Z</time>
      </trkpt>
      <trkpt lat="42.39919" lon="0.02443">
        <ele>1081.5</ele>
        <time>2016-07-24T09:24:50Z</time>
      </trkpt>
      <trkpt lat="42.39922" lon="0.02441">
        <ele>1081.3</ele>
        <time>2016-07-24T09:24:52Z</time>
      </trkpt>
      <trkpt lat="42.39924" lon="0.02439">
        <ele>1081.2</ele>
        <time>2016-07-24T09:24:54Z</time>
      </trkpt>
      <trkpt lat="42.39928" lon="0.02439">
        <ele>1081.1</ele>
        <time>2016-07-24T09:24:56Z</time>
      </trkpt>
      <trkpt lat="42.39932" lon="0.02441">
        <ele>1081.1</ele>
        <time>2016-07-24T09:24:58Z</time>
      </trkpt>
      <trkpt lat="42.39935" lon="0.02443">
        <ele>1081.2</ele>
        <time>2016-07-24T09:25:00Z</time>
      </trkpt>
      <trkpt lat="42.39936" lon="0.02449">
        <ele>1081.6</ele>
        <time>2016-07-24T09:25:02Z</time>
      </trkpt>
      <trkpt lat="42.39935" lon="0.02453">
        <ele>1081.9</ele>
        <time>2016-07-24T09:25:04Z</time>
      </trkpt>
      <trkpt lat="42.39934" lon="0.02457">
        <ele>1082.2</ele>
        <time>2016-07-24T09:25:10Z</time>
      </trkpt>
      <trkpt lat="42.39933" lon="0.0246">
        <ele>1082.3</ele>
        <time>2016-07-24T09:25:16Z</time>
      </trkpt>
      <trkpt lat="42.39932" lon="0.02464">
        <ele>1082.4</ele>
        <time>2016-07-24T09:25:22Z</time>
      </trkpt>
      <trkpt lat="42.3993" lon="0.02467">
        <ele>1082.5</ele>
        <time>2016-07-24T09:25:31Z</time>
      </trkpt>
      <trkpt lat="42.39929" lon="0.0247">
        <ele>1082.5</ele>
        <time>2016-07-24T09:25:37Z</time>
      </trkpt>
      <trkpt lat="42.39928" lon="0.02474">
        <ele>1082.6</ele>
        <time>2016-07-24T09:25:45Z</time>
      </trkpt>
      <trkpt lat="42.39927" lon="0.02478">
        <ele>1082.7</ele>
        <time>2016-07-24T09:25:51Z</time>
      </trkpt>
      <trkpt lat="42.39925" lon="0.02481">
        <ele>1082.8</ele>
        <time>2016-07-24T09:25:55Z</time>
      </trkpt>
      <trkpt lat="42.39922" lon="0.02481">
        <ele>1082.9</ele>
        <time>2016-07-24T09:26:07Z</time>
      </trkpt>
      <trkpt lat="42.39919" lon="0.02483">
        <ele>1083</ele>
        <time>2016-07-24T09:26:10Z</time>
      </trkpt>
      <trkpt lat="42.39916" lon="0.02487">
        <ele>1083.2</ele>
        <time>2016-07-24T09:26:13Z</time>
      </trkpt>
      <trkpt lat="42.39914" lon="0.02489">
        <ele>1083.3</ele>
        <time>2016-07-24T09:26:15Z</time>
      </trkpt>
      <trkpt lat="42.3991" lon="0.02491">
        <ele>1083.6</ele>
        <time>2016-07-24T09:26:17Z</time>
      </trkpt>
      <trkpt lat="42.39908" lon="0.02495">
        <ele>1083.8</ele>
        <time>2016-07-24T09:26:19Z</time>
      </trkpt>
      <trkpt lat="42.39908" lon="0.02501">
        <ele>1084</ele>
        <time>2016-07-24T09:26:21Z</time>
      </trkpt>
      <trkpt lat="42.39907" lon="0.02505">
        <ele>1084.1</ele>
        <time>2016-07-24T09:26:22Z</time>
      </trkpt>
      <trkpt lat="42.39906" lon="0.0251">
        <ele>1084.3</ele>
        <time>2016-07-24T09:26:23Z</time>
      </trkpt>
      <trkpt lat="42.39905" lon="0.02514">
        <ele>1084.5</ele>
        <time>2016-07-24T09:26:24Z</time>
      </trkpt>
      <trkpt lat="42.39903" lon="0.0252">
        <ele>1084.9</ele>
        <time>2016-07-24T09:26:26Z</time>
      </trkpt>
      <trkpt lat="42.39902" lon="0.02523">
        <ele>1085.1</ele>
        <time>2016-07-24T09:26:27Z</time>
      </trkpt>
      <trkpt lat="42.399" lon="0.02528">
        <ele>1085.3</ele>
        <time>2016-07-24T09:26:28Z</time>
      </trkpt>
      <trkpt lat="42.39898" lon="0.02532">
        <ele>1085.7</ele>
        <time>2016-07-24T09:26:29Z</time>
      </trkpt>
      <trkpt lat="42.39894" lon="0.02537">
        <ele>1086.2</ele>
        <time>2016-07-24T09:26:30Z</time>
      </trkpt>
      <trkpt lat="42.3989" lon="0.02541">
        <ele>1086.7</ele>
        <time>2016-07-24T09:26:31Z</time>
      </trkpt>
      <trkpt lat="42.39886" lon="0.02545">
        <ele>1086.3</ele>
        <time>2016-07-24T09:26:32Z</time>
      </trkpt>
      <trkpt lat="42.39881" lon="0.02549">
        <ele>1085.6</ele>
        <time>2016-07-24T09:26:33Z</time>
      </trkpt>
      <trkpt lat="42.39877" lon="0.02553">
        <ele>1085</ele>
        <time>2016-07-24T09:26:34Z</time>
      </trkpt>
      <trkpt lat="42.39873" lon="0.02556">
        <ele>1084.5</ele>
        <time>2016-07-24T09:26:35Z</time>
      </trkpt>
      <trkpt lat="42.39868" lon="0.02559">
        <ele>1084</ele>
        <time>2016-07-24T09:26:36Z</time>
      </trkpt>
      <trkpt lat="42.39863" lon="0.0256">
        <ele>1083.8</ele>
        <time>2016-07-24T09:26:37Z</time>
      </trkpt>
      <trkpt lat="42.39858" lon="0.0256">
        <ele>1083.8</ele>
        <time>2016-07-24T09:26:38Z</time>
      </trkpt>
      <trkpt lat="42.39854" lon="0.0256">
        <ele>1083.9</ele>
        <time>2016-07-24T09:26:39Z</time>
      </trkpt>
      <trkpt lat="42.3985" lon="0.02559">
        <ele>1084.2</ele>
        <time>2016-07-24T09:26:40Z</time>
      </trkpt>
      <trkpt lat="42.39847" lon="0.02558">
        <ele>1084.4</ele>
        <time>2016-07-24T09:26:41Z</time>
      </trkpt>
      <trkpt lat="42.39843" lon="0.02558">
        <ele>1084.5</ele>
        <time>2016-07-24T09:26:43Z</time>
      </trkpt>
      <trkpt lat="42.39838" lon="0.0256">
        <ele>1084.1</ele>
        <time>2016-07-24T09:26:45Z</time>
      </trkpt>
      <trkpt lat="42.39836" lon="0.02561">
        <ele>1083.9</ele>
        <time>2016-07-24T09:26:46Z</time>
      </trkpt>
      <trkpt lat="42.39831" lon="0.02562">
        <ele>1083.7</ele>
        <time>2016-07-24T09:26:48Z</time>
      </trkpt>
      <trkpt lat="42.39827" lon="0.02563">
        <ele>1083.7</ele>
        <time>2016-07-24T09:26:50Z</time>
      </trkpt>
      <trkpt lat="42.39823" lon="0.02565">
        <ele>1083.2</ele>
        <time>2016-07-24T09:26:52Z</time>
      </trkpt>
      <trkpt lat="42.3982" lon="0.02571">
        <ele>1081.9</ele>
        <time>2016-07-24T09:26:54Z</time>
      </trkpt>
      <trkpt lat="42.39818" lon="0.02577">
        <ele>1080.6</ele>
        <time>2016-07-24T09:26:56Z</time>
      </trkpt>
      <trkpt lat="42.39815" lon="0.0258">
        <ele>1079.8</ele>
        <time>2016-07-24T09:26:58Z</time>
      </trkpt>
      <trkpt lat="42.39815" lon="0.02584">
        <ele>1078.9</ele>
        <time>2016-07-24T09:27:03Z</time>
      </trkpt>
      <trkpt lat="42.39813" lon="0.02588">
        <ele>1078</ele>
        <time>2016-07-24T09:27:06Z</time>
      </trkpt>
      <trkpt lat="42.3981" lon="0.02592">
        <ele>1077.2</ele>
        <time>2016-07-24T09:27:12Z</time>
      </trkpt>
      <trkpt lat="42.39805" lon="0.02597">
        <ele>1076.1</ele>
        <time>2016-07-24T09:27:14Z</time>
      </trkpt>
      <trkpt lat="42.39801" lon="0.02599">
        <ele>1075.7</ele>
        <time>2016-07-24T09:27:15Z</time>
      </trkpt>
      <trkpt lat="42.39797" lon="0.02601">
        <ele>1075.4</ele>
        <time>2016-07-24T09:27:16Z</time>
      </trkpt>
      <trkpt lat="42.39794" lon="0.02602">
        <ele>1075.2</ele>
        <time>2016-07-24T09:27:17Z</time>
      </trkpt>
      <trkpt lat="42.3979" lon="0.02603">
        <ele>1075.3</ele>
        <time>2016-07-24T09:27:18Z</time>
      </trkpt>
      <trkpt lat="42.39787" lon="0.02604">
        <ele>1075.7</ele>
        <time>2016-07-24T09:27:19Z</time>
      </trkpt>
      <trkpt lat="42.39783" lon="0.02605">
        <ele>1076.2</ele>
        <time>2016-07-24T09:27:20Z</time>
      </trkpt>
      <trkpt lat="42.3978" lon="0.02606">
        <ele>1076.8</ele>
        <time>2016-07-24T09:27:21Z</time>
      </trkpt>
      <trkpt lat="42.39776" lon="0.02607">
        <ele>1077.2</ele>
        <time>2016-07-24T09:27:22Z</time>
      </trkpt>
      <trkpt lat="42.39773" lon="0.02608">
        <ele>1077.5</ele>
        <time>2016-07-24T09:27:23Z</time>
      </trkpt>
      <trkpt lat="42.39768" lon="0.0261">
        <ele>1078</ele>
        <time>2016-07-24T09:27:25Z</time>
      </trkpt>
      <trkpt lat="42.39765" lon="0.0261">
        <ele>1078.6</ele>
        <time>2016-07-24T09:27:26Z</time>
      </trkpt>
      <trkpt lat="42.39762" lon="0.02609">
        <ele>1079.5</ele>
        <time>2016-07-24T09:27:27Z</time>
      </trkpt>
      <trkpt lat="42.39759" lon="0.02607">
        <ele>1080.5</ele>
        <time>2016-07-24T09:27:28Z</time>
      </trkpt>
      <trkpt lat="42.39756" lon="0.02606">
        <ele>1081.4</ele>
        <time>2016-07-24T09:27:29Z</time>
      </trkpt>
      <trkpt lat="42.39753" lon="0.02605">
        <ele>1082.2</ele>
        <time>2016-07-24T09:27:30Z</time>
      </trkpt>
      <trkpt lat="42.39748" lon="0.02604">
        <ele>1083.4</ele>
        <time>2016-07-24T09:27:32Z</time>
      </trkpt>
      <trkpt lat="42.39745" lon="0.02604">
        <ele>1084</ele>
        <time>2016-07-24T09:27:33Z</time>
      </trkpt>
      <trkpt lat="42.39742" lon="0.02604">
        <ele>1084.5</ele>
        <time>2016-07-24T09:27:34Z</time>
      </trkpt>
      <trkpt lat="42.39738" lon="0.02605">
        <ele>1084.9</ele>
        <time>2016-07-24T09:27:36Z</time>
      </trkpt>
      <trkpt lat="42.39737" lon="0.02608">
        <ele>1084.5</ele>
        <time>2016-07-24T09:27:38Z</time>
      </trkpt>
      <trkpt lat="42.39738" lon="0.02612">
        <ele>1083.4</ele>
        <time>2016-07-24T09:27:40Z</time>
      </trkpt>
      <trkpt lat="42.39741" lon="0.02616">
        <ele>1081.9</ele>
        <time>2016-07-24T09:27:42Z</time>
      </trkpt>
      <trkpt lat="42.39743" lon="0.02619">
        <ele>1080.8</ele>
        <time>2016-07-24T09:27:44Z</time>
      </trkpt>
      <trkpt lat="42.39741" lon="0.02624">
        <ele>1080.1</ele>
        <time>2016-07-24T09:27:46Z</time>
      </trkpt>
      <trkpt lat="42.39739" lon="0.02627">
        <ele>1079.5</ele>
        <time>2016-07-24T09:27:47Z</time>
      </trkpt>
      <trkpt lat="42.39738" lon="0.02632">
        <ele>1078.7</ele>
        <time>2016-07-24T09:27:48Z</time>
      </trkpt>
      <trkpt lat="42.39736" lon="0.02636">
        <ele>1077.8</ele>
        <time>2016-07-24T09:27:49Z</time>
      </trkpt>
      <trkpt lat="42.39734" lon="0.02641">
        <ele>1077.1</ele>
        <time>2016-07-24T09:27:50Z</time>
      </trkpt>
      <trkpt lat="42.39732" lon="0.02645">
        <ele>1076.5</ele>
        <time>2016-07-24T09:27:51Z</time>
      </trkpt>
      <trkpt lat="42.3973" lon="0.02648">
        <ele>1076.1</ele>
        <time>2016-07-24T09:27:52Z</time>
      </trkpt>
      <trkpt lat="42.39729" lon="0.02652">
        <ele>1075.5</ele>
        <time>2016-07-24T09:27:54Z</time>
      </trkpt>
      <trkpt lat="42.39729" lon="0.0266">
        <ele>1073.7</ele>
        <time>2016-07-24T09:27:56Z</time>
      </trkpt>
      <trkpt lat="42.39729" lon="0.02664">
        <ele>1072.6</ele>
        <time>2016-07-24T09:27:57Z</time>
      </trkpt>
      <trkpt lat="42.39729" lon="0.02668">
        <ele>1071.5</ele>
        <time>2016-07-24T09:27:59Z</time>
      </trkpt>
      <trkpt lat="42.39728" lon="0.02673">
        <ele>1070.7</ele>
        <time>2016-07-24T09:28:01Z</time>
      </trkpt>
      <trkpt lat="42.39726" lon="0.02677">
        <ele>1070.2</ele>
        <time>2016-07-24T09:28:02Z</time>
      </trkpt>
      <trkpt lat="42.39724" lon="0.02682">
        <ele>1069.7</ele>
        <time>2016-07-24T09:28:03Z</time>
      </trkpt>
      <trkpt lat="42.39722" lon="0.02686">
        <ele>1069</ele>
        <time>2016-07-24T09:28:04Z</time>
      </trkpt>
      <trkpt lat="42.39721" lon="0.0269">
        <ele>1068.5</ele>
        <time>2016-07-24T09:28:05Z</time>
      </trkpt>
      <trkpt lat="42.39721" lon="0.02696">
        <ele>1067.2</ele>
        <time>2016-07-24T09:28:07Z</time>
      </trkpt>
      <trkpt lat="42.39722" lon="0.02703">
        <ele>1065.2</ele>
        <time>2016-07-24T09:28:09Z</time>
      </trkpt>
      <trkpt lat="42.39725" lon="0.02707">
        <ele>1063.2</ele>
        <time>2016-07-24T09:28:11Z</time>
      </trkpt>
      <trkpt lat="42.39728" lon="0.0271">
        <ele>1061.6</ele>
        <time>2016-07-24T09:28:13Z</time>
      </trkpt>
      <trkpt lat="42.39728" lon="0.02714">
        <ele>1061.1</ele>
        <time>2016-07-24T09:28:41Z</time>
      </trkpt>
      <trkpt lat="42.3973" lon="0.02718">
        <ele>1059.7</ele>
        <time>2016-07-24T09:28:43Z</time>
      </trkpt>
      <trkpt lat="42.39735" lon="0.02718">
        <ele>1058.1</ele>
        <time>2016-07-24T09:28:45Z</time>
      </trkpt>
      <trkpt lat="42.3974" lon="0.02717">
        <ele>1056.8</ele>
        <time>2016-07-24T09:28:47Z</time>
      </trkpt>
      <trkpt lat="42.39744" lon="0.02717">
        <ele>1055.6</ele>
        <time>2016-07-24T09:28:49Z</time>
      </trkpt>
      <trkpt lat="42.39748" lon="0.0272">
        <ele>1054.1</ele>
        <time>2016-07-24T09:28:51Z</time>
      </trkpt>
      <trkpt lat="42.3975" lon="0.02723">
        <ele>1052.8</ele>
        <time>2016-07-24T09:28:53Z</time>
      </trkpt>
      <trkpt lat="42.39748" lon="0.02729">
        <ele>1052.2</ele>
        <time>2016-07-24T09:28:55Z</time>
      </trkpt>
      <trkpt lat="42.39745" lon="0.02732">
        <ele>1052.7</ele>
        <time>2016-07-24T09:28:57Z</time>
      </trkpt>
      <trkpt lat="42.39741" lon="0.02734">
        <ele>1053.4</ele>
        <time>2016-07-24T09:28:59Z</time>
      </trkpt>
      <trkpt lat="42.39737" lon="0.0274">
        <ele>1053.5</ele>
        <time>2016-07-24T09:29:01Z</time>
      </trkpt>
      <trkpt lat="42.39735" lon="0.02746">
        <ele>1052.9</ele>
        <time>2016-07-24T09:29:02Z</time>
      </trkpt>
      <trkpt lat="42.39733" lon="0.02754">
        <ele>1051.8</ele>
        <time>2016-07-24T09:29:03Z</time>
      </trkpt>
      <trkpt lat="42.39732" lon="0.02762">
        <ele>1050.5</ele>
        <time>2016-07-24T09:29:04Z</time>
      </trkpt>
      <trkpt lat="42.39732" lon="0.02769">
        <ele>1049.2</ele>
        <time>2016-07-24T09:29:05Z</time>
      </trkpt>
      <trkpt lat="42.3973" lon="0.02776">
        <ele>1048.2</ele>
        <time>2016-07-24T09:29:06Z</time>
      </trkpt>
      <trkpt lat="42.39729" lon="0.02783">
        <ele>1047.3</ele>
        <time>2016-07-24T09:29:07Z</time>
      </trkpt>
      <trkpt lat="42.39727" lon="0.02788">
        <ele>1046.7</ele>
        <time>2016-07-24T09:29:08Z</time>
      </trkpt>
      <trkpt lat="42.39725" lon="0.02793">
        <ele>1046.3</ele>
        <time>2016-07-24T09:29:09Z</time>
      </trkpt>
      <trkpt lat="42.39722" lon="0.02797">
        <ele>1045.7</ele>
        <time>2016-07-24T09:29:10Z</time>
      </trkpt>
      <trkpt lat="42.39718" lon="0.028">
        <ele>1045.5</ele>
        <time>2016-07-24T09:29:11Z</time>
      </trkpt>
      <trkpt lat="42.39714" lon="0.02803">
        <ele>1045.5</ele>
        <time>2016-07-24T09:29:12Z</time>
      </trkpt>
      <trkpt lat="42.39709" lon="0.02805">
        <ele>1045.5</ele>
        <time>2016-07-24T09:29:13Z</time>
      </trkpt>
      <trkpt lat="42.39706" lon="0.02807">
        <ele>1046.1</ele>
        <time>2016-07-24T09:29:14Z</time>
      </trkpt>
      <trkpt lat="42.39702" lon="0.02808">
        <ele>1046.9</ele>
        <time>2016-07-24T09:29:15Z</time>
      </trkpt>
      <trkpt lat="42.39699" lon="0.02808">
        <ele>1047.8</ele>
        <time>2016-07-24T09:29:16Z</time>
      </trkpt>
      <trkpt lat="42.39694" lon="0.0281">
        <ele>1049.1</ele>
        <time>2016-07-24T09:29:18Z</time>
      </trkpt>
      <trkpt lat="42.3969" lon="0.02812">
        <ele>1049.3</ele>
        <time>2016-07-24T09:29:19Z</time>
      </trkpt>
      <trkpt lat="42.39687" lon="0.02815">
        <ele>1049.5</ele>
        <time>2016-07-24T09:29:20Z</time>
      </trkpt>
      <trkpt lat="42.39683" lon="0.02818">
        <ele>1049.7</ele>
        <time>2016-07-24T09:29:21Z</time>
      </trkpt>
      <trkpt lat="42.39679" lon="0.02821">
        <ele>1049.8</ele>
        <time>2016-07-24T09:29:22Z</time>
      </trkpt>
      <trkpt lat="42.39675" lon="0.02823">
        <ele>1050</ele>
        <time>2016-07-24T09:29:23Z</time>
      </trkpt>
      <trkpt lat="42.39671" lon="0.02826">
        <ele>1050.4</ele>
        <time>2016-07-24T09:29:24Z</time>
      </trkpt>
      <trkpt lat="42.39667" lon="0.02828">
        <ele>1050.8</ele>
        <time>2016-07-24T09:29:25Z</time>
      </trkpt>
      <trkpt lat="42.39663" lon="0.02831">
        <ele>1050.7</ele>
        <time>2016-07-24T09:29:26Z</time>
      </trkpt>
      <trkpt lat="42.3966" lon="0.02835">
        <ele>1050.1</ele>
        <time>2016-07-24T09:29:27Z</time>
      </trkpt>
      <trkpt lat="42.39658" lon="0.02838">
        <ele>1049.2</ele>
        <time>2016-07-24T09:29:28Z</time>
      </trkpt>
      <trkpt lat="42.39656" lon="0.02842">
        <ele>1048.5</ele>
        <time>2016-07-24T09:29:29Z</time>
      </trkpt>
      <trkpt lat="42.39653" lon="0.02844">
        <ele>1048</ele>
        <time>2016-07-24T09:29:30Z</time>
      </trkpt>
      <trkpt lat="42.3965" lon="0.02847">
        <ele>1047.6</ele>
        <time>2016-07-24T09:29:31Z</time>
      </trkpt>
      <trkpt lat="42.39648" lon="0.0285">
        <ele>1047.2</ele>
        <time>2016-07-24T09:29:32Z</time>
      </trkpt>
      <trkpt lat="42.39644" lon="0.02854">
        <ele>1046.5</ele>
        <time>2016-07-24T09:29:34Z</time>
      </trkpt>
      <trkpt lat="42.39642" lon="0.02857">
        <ele>1045.8</ele>
        <time>2016-07-24T09:29:35Z</time>
      </trkpt>
      <trkpt lat="42.39639" lon="0.02861">
        <ele>1044.8</ele>
        <time>2016-07-24T09:29:36Z</time>
      </trkpt>
      <trkpt lat="42.39636" lon="0.02866">
        <ele>1043.4</ele>
        <time>2016-07-24T09:29:37Z</time>
      </trkpt>
      <trkpt lat="42.39632" lon="0.0287">
        <ele>1042.2</ele>
        <time>2016-07-24T09:29:38Z</time>
      </trkpt>
      <trkpt lat="42.3963" lon="0.02875">
        <ele>1040.9</ele>
        <time>2016-07-24T09:29:39Z</time>
      </trkpt>
      <trkpt lat="42.39627" lon="0.02879">
        <ele>1039.5</ele>
        <time>2016-07-24T09:29:40Z</time>
      </trkpt>
      <trkpt lat="42.39625" lon="0.02884">
        <ele>1037.9</ele>
        <time>2016-07-24T09:29:41Z</time>
      </trkpt>
      <trkpt lat="42.39623" lon="0.02889">
        <ele>1036.1</ele>
        <time>2016-07-24T09:29:42Z</time>
      </trkpt>
      <trkpt lat="42.39621" lon="0.02894">
        <ele>1034.4</ele>
        <time>2016-07-24T09:29:43Z</time>
      </trkpt>
      <trkpt lat="42.39618" lon="0.02899">
        <ele>1032.7</ele>
        <time>2016-07-24T09:29:44Z</time>
      </trkpt>
      <trkpt lat="42.39615" lon="0.02903">
        <ele>1031.1</ele>
        <time>2016-07-24T09:29:45Z</time>
      </trkpt>
      <trkpt lat="42.39611" lon="0.02908">
        <ele>1029.8</ele>
        <time>2016-07-24T09:29:46Z</time>
      </trkpt>
      <trkpt lat="42.39608" lon="0.02912">
        <ele>1028.9</ele>
        <time>2016-07-24T09:29:47Z</time>
      </trkpt>
      <trkpt lat="42.39603" lon="0.02914">
        <ele>1028.6</ele>
        <time>2016-07-24T09:29:48Z</time>
      </trkpt>
      <trkpt lat="42.39599" lon="0.02916">
        <ele>1028.5</ele>
        <time>2016-07-24T09:29:49Z</time>
      </trkpt>
      <trkpt lat="42.39595" lon="0.02918">
        <ele>1028.5</ele>
        <time>2016-07-24T09:29:50Z</time>
      </trkpt>
      <trkpt lat="42.39591" lon="0.0292">
        <ele>1028.7</ele>
        <time>2016-07-24T09:29:51Z</time>
      </trkpt>
      <trkpt lat="42.39587" lon="0.02922">
        <ele>1028.7</ele>
        <time>2016-07-24T09:29:52Z</time>
      </trkpt>
      <trkpt lat="42.39584" lon="0.02924">
        <ele>1028.4</ele>
        <time>2016-07-24T09:29:53Z</time>
      </trkpt>
      <trkpt lat="42.39581" lon="0.02927">
        <ele>1028</ele>
        <time>2016-07-24T09:29:54Z</time>
      </trkpt>
      <trkpt lat="42.39578" lon="0.02929">
        <ele>1027.9</ele>
        <time>2016-07-24T09:29:55Z</time>
      </trkpt>
      <trkpt lat="42.39575" lon="0.02932">
        <ele>1027.9</ele>
        <time>2016-07-24T09:29:57Z</time>
      </trkpt>
      <trkpt lat="42.39571" lon="0.02934">
        <ele>1028</ele>
        <time>2016-07-24T09:29:59Z</time>
      </trkpt>
      <trkpt lat="42.39568" lon="0.02936">
        <ele>1028.2</ele>
        <time>2016-07-24T09:30:01Z</time>
      </trkpt>
      <trkpt lat="42.39565" lon="0.02939">
        <ele>1027.8</ele>
        <time>2016-07-24T09:30:03Z</time>
      </trkpt>
      <trkpt lat="42.39565" lon="0.02943">
        <ele>1026.9</ele>
        <time>2016-07-24T09:30:04Z</time>
      </trkpt>
      <trkpt lat="42.39565" lon="0.02948">
        <ele>1025.5</ele>
        <time>2016-07-24T09:30:05Z</time>
      </trkpt>
      <trkpt lat="42.39566" lon="0.02953">
        <ele>1024</ele>
        <time>2016-07-24T09:30:06Z</time>
      </trkpt>
      <trkpt lat="42.39567" lon="0.02957">
        <ele>1022.5</ele>
        <time>2016-07-24T09:30:07Z</time>
      </trkpt>
      <trkpt lat="42.39568" lon="0.02961">
        <ele>1020.8</ele>
        <time>2016-07-24T09:30:08Z</time>
      </trkpt>
      <trkpt lat="42.3957" lon="0.02964">
        <ele>1019.2</ele>
        <time>2016-07-24T09:30:09Z</time>
      </trkpt>
      <trkpt lat="42.39571" lon="0.0297">
        <ele>1016.9</ele>
        <time>2016-07-24T09:30:11Z</time>
      </trkpt>
      <trkpt lat="42.39571" lon="0.02975">
        <ele>1015</ele>
        <time>2016-07-24T09:30:13Z</time>
      </trkpt>
      <trkpt lat="42.3957" lon="0.0298">
        <ele>1013.6</ele>
        <time>2016-07-24T09:30:15Z</time>
      </trkpt>
      <trkpt lat="42.39566" lon="0.02983">
        <ele>1013.6</ele>
        <time>2016-07-24T09:30:17Z</time>
      </trkpt>
      <trkpt lat="42.39563" lon="0.02985">
        <ele>1014</ele>
        <time>2016-07-24T09:30:18Z</time>
      </trkpt>
      <trkpt lat="42.3956" lon="0.02986">
        <ele>1014.3</ele>
        <time>2016-07-24T09:30:19Z</time>
      </trkpt>
      <trkpt lat="42.39555" lon="0.02988">
        <ele>1014.9</ele>
        <time>2016-07-24T09:30:21Z</time>
      </trkpt>
      <trkpt lat="42.39553" lon="0.02988">
        <ele>1015.5</ele>
        <time>2016-07-24T09:30:23Z</time>
      </trkpt>
      <trkpt lat="42.39549" lon="0.0299">
        <ele>1015.8</ele>
        <time>2016-07-24T09:30:26Z</time>
      </trkpt>
      <trkpt lat="42.39546" lon="0.02993">
        <ele>1015.7</ele>
        <time>2016-07-24T09:30:28Z</time>
      </trkpt>
      <trkpt lat="42.39543" lon="0.02996">
        <ele>1015.5</ele>
        <time>2016-07-24T09:30:29Z</time>
      </trkpt>
      <trkpt lat="42.39541" lon="0.02998">
        <ele>1014.9</ele>
        <time>2016-07-24T09:30:30Z</time>
      </trkpt>
      <trkpt lat="42.39538" lon="0.03">
        <ele>1014</ele>
        <time>2016-07-24T09:30:31Z</time>
      </trkpt>
      <trkpt lat="42.39534" lon="0.03003">
        <ele>1012.4</ele>
        <time>2016-07-24T09:30:33Z</time>
      </trkpt>
      <trkpt lat="42.39531" lon="0.03006">
        <ele>1011.2</ele>
        <time>2016-07-24T09:30:34Z</time>
      </trkpt>
      <trkpt lat="42.39528" lon="0.03009">
        <ele>1009.9</ele>
        <time>2016-07-24T09:30:35Z</time>
      </trkpt>
      <trkpt lat="42.39524" lon="0.03013">
        <ele>1008.5</ele>
        <time>2016-07-24T09:30:36Z</time>
      </trkpt>
      <trkpt lat="42.39521" lon="0.03016">
        <ele>1007.2</ele>
        <time>2016-07-24T09:30:37Z</time>
      </trkpt>
      <trkpt lat="42.39517" lon="0.03019">
        <ele>1006.2</ele>
        <time>2016-07-24T09:30:38Z</time>
      </trkpt>
      <trkpt lat="42.39514" lon="0.03021">
        <ele>1005.5</ele>
        <time>2016-07-24T09:30:39Z</time>
      </trkpt>
      <trkpt lat="42.3951" lon="0.03023">
        <ele>1004.8</ele>
        <time>2016-07-24T09:30:40Z</time>
      </trkpt>
      <trkpt lat="42.39507" lon="0.03025">
        <ele>1004.3</ele>
        <time>2016-07-24T09:30:41Z</time>
      </trkpt>
      <trkpt lat="42.39504" lon="0.03027">
        <ele>1003.7</ele>
        <time>2016-07-24T09:30:42Z</time>
      </trkpt>
      <trkpt lat="42.39501" lon="0.0303">
        <ele>1003</ele>
        <time>2016-07-24T09:30:44Z</time>
      </trkpt>
      <trkpt lat="42.39498" lon="0.03033">
        <ele>1002.5</ele>
        <time>2016-07-24T09:30:46Z</time>
      </trkpt>
      <trkpt lat="42.39496" lon="0.03035">
        <ele>1002.2</ele>
        <time>2016-07-24T09:30:48Z</time>
      </trkpt>
      <trkpt lat="42.39492" lon="0.03039">
        <ele>1001.6</ele>
        <time>2016-07-24T09:30:50Z</time>
      </trkpt>
      <trkpt lat="42.3949" lon="0.03042">
        <ele>1001.1</ele>
        <time>2016-07-24T09:30:51Z</time>
      </trkpt>
      <trkpt lat="42.39488" lon="0.03045">
        <ele>1000.5</ele>
        <time>2016-07-24T09:30:52Z</time>
      </trkpt>
      <trkpt lat="42.39486" lon="0.03049">
        <ele>999.9</ele>
        <time>2016-07-24T09:30:53Z</time>
      </trkpt>
      <trkpt lat="42.39483" lon="0.03052">
        <ele>999.4</ele>
        <time>2016-07-24T09:30:54Z</time>
      </trkpt>
      <trkpt lat="42.39479" lon="0.03055">
        <ele>999</ele>
        <time>2016-07-24T09:30:55Z</time>
      </trkpt>
      <trkpt lat="42.39476" lon="0.03058">
        <ele>998.8</ele>
        <time>2016-07-24T09:30:56Z</time>
      </trkpt>
      <trkpt lat="42.39473" lon="0.03061">
        <ele>998.5</ele>
        <time>2016-07-24T09:30:57Z</time>
      </trkpt>
      <trkpt lat="42.3947" lon="0.03063">
        <ele>998.4</ele>
        <time>2016-07-24T09:30:58Z</time>
      </trkpt>
      <trkpt lat="42.39467" lon="0.03066">
        <ele>998.2</ele>
        <time>2016-07-24T09:31:00Z</time>
      </trkpt>
      <trkpt lat="42.39465" lon="0.03069">
        <ele>998</ele>
        <time>2016-07-24T09:31:02Z</time>
      </trkpt>
      <trkpt lat="42.39464" lon="0.03073">
        <ele>997.6</ele>
        <time>2016-07-24T09:31:04Z</time>
      </trkpt>
      <trkpt lat="42.39463" lon="0.03078">
        <ele>997.1</ele>
        <time>2016-07-24T09:31:06Z</time>
      </trkpt>
      <trkpt lat="42.39462" lon="0.03082">
        <ele>996.6</ele>
        <time>2016-07-24T09:31:09Z</time>
      </trkpt>
      <trkpt lat="42.39458" lon="0.03087">
        <ele>996.5</ele>
        <time>2016-07-24T09:31:11Z</time>
      </trkpt>
      <trkpt lat="42.39456" lon="0.0309">
        <ele>995.6</ele>
        <time>2016-07-24T09:31:12Z</time>
      </trkpt>
      <trkpt lat="42.39453" lon="0.03093">
        <ele>994.5</ele>
        <time>2016-07-24T09:31:13Z</time>
      </trkpt>
      <trkpt lat="42.3945" lon="0.03096">
        <ele>993.5</ele>
        <time>2016-07-24T09:31:14Z</time>
      </trkpt>
      <trkpt lat="42.39447" lon="0.03099">
        <ele>992.5</ele>
        <time>2016-07-24T09:31:15Z</time>
      </trkpt>
      <trkpt lat="42.39445" lon="0.03102">
        <ele>991.6</ele>
        <time>2016-07-24T09:31:16Z</time>
      </trkpt>
      <trkpt lat="42.39442" lon="0.03105">
        <ele>990.9</ele>
        <time>2016-07-24T09:31:17Z</time>
      </trkpt>
      <trkpt lat="42.3944" lon="0.03109">
        <ele>990.1</ele>
        <time>2016-07-24T09:31:18Z</time>
      </trkpt>
      <trkpt lat="42.39437" lon="0.03113">
        <ele>989.3</ele>
        <time>2016-07-24T09:31:19Z</time>
      </trkpt>
      <trkpt lat="42.39434" lon="0.03117">
        <ele>988.6</ele>
        <time>2016-07-24T09:31:20Z</time>
      </trkpt>
      <trkpt lat="42.39431" lon="0.0312">
        <ele>988</ele>
        <time>2016-07-24T09:31:21Z</time>
      </trkpt>
      <trkpt lat="42.39429" lon="0.03123">
        <ele>987.4</ele>
        <time>2016-07-24T09:31:22Z</time>
      </trkpt>
      <trkpt lat="42.39426" lon="0.03126">
        <ele>986.8</ele>
        <time>2016-07-24T09:31:23Z</time>
      </trkpt>
      <trkpt lat="42.39424" lon="0.03128">
        <ele>986</ele>
        <time>2016-07-24T09:31:24Z</time>
      </trkpt>
      <trkpt lat="42.39422" lon="0.03131">
        <ele>985.2</ele>
        <time>2016-07-24T09:31:25Z</time>
      </trkpt>
      <trkpt lat="42.3942" lon="0.03134">
        <ele>984.3</ele>
        <time>2016-07-24T09:31:26Z</time>
      </trkpt>
      <trkpt lat="42.39418" lon="0.03137">
        <ele>983.4</ele>
        <time>2016-07-24T09:31:27Z</time>
      </trkpt>
      <trkpt lat="42.39416" lon="0.03141">
        <ele>982.3</ele>
        <time>2016-07-24T09:31:28Z</time>
      </trkpt>
      <trkpt lat="42.39414" lon="0.03145">
        <ele>981.2</ele>
        <time>2016-07-24T09:31:29Z</time>
      </trkpt>
      <trkpt lat="42.39413" lon="0.0315">
        <ele>980.1</ele>
        <time>2016-07-24T09:31:30Z</time>
      </trkpt>
      <trkpt lat="42.39411" lon="0.03154">
        <ele>979</ele>
        <time>2016-07-24T09:31:31Z</time>
      </trkpt>
      <trkpt lat="42.3941" lon="0.03158">
        <ele>978.2</ele>
        <time>2016-07-24T09:31:32Z</time>
      </trkpt>
      <trkpt lat="42.39408" lon="0.03162">
        <ele>977.2</ele>
        <time>2016-07-24T09:31:33Z</time>
      </trkpt>
      <trkpt lat="42.39406" lon="0.03166">
        <ele>976.1</ele>
        <time>2016-07-24T09:31:34Z</time>
      </trkpt>
      <trkpt lat="42.39404" lon="0.03171">
        <ele>975.1</ele>
        <time>2016-07-24T09:31:35Z</time>
      </trkpt>
      <trkpt lat="42.39402" lon="0.03175">
        <ele>974.1</ele>
        <time>2016-07-24T09:31:36Z</time>
      </trkpt>
      <trkpt lat="42.39399" lon="0.03178">
        <ele>973.3</ele>
        <time>2016-07-24T09:31:37Z</time>
      </trkpt>
      <trkpt lat="42.39397" lon="0.03181">
        <ele>972.5</ele>
        <time>2016-07-24T09:31:38Z</time>
      </trkpt>
      <trkpt lat="42.39395" lon="0.03184">
        <ele>971.7</ele>
        <time>2016-07-24T09:31:39Z</time>
      </trkpt>
      <trkpt lat="42.39394" lon="0.03188">
        <ele>971</ele>
        <time>2016-07-24T09:31:40Z</time>
      </trkpt>
      <trkpt lat="42.39392" lon="0.03193">
        <ele>969.9</ele>
        <time>2016-07-24T09:31:42Z</time>
      </trkpt>
      <trkpt lat="42.3939" lon="0.03197">
        <ele>968.9</ele>
        <time>2016-07-24T09:31:44Z</time>
      </trkpt>
      <trkpt lat="42.39392" lon="0.03202">
        <ele>968.4</ele>
        <time>2016-07-24T09:31:47Z</time>
      </trkpt>
      <trkpt lat="42.39396" lon="0.03201">
        <ele>968.7</ele>
        <time>2016-07-24T09:31:49Z</time>
      </trkpt>
      <trkpt lat="42.39401" lon="0.03203">
        <ele>968.8</ele>
        <time>2016-07-24T09:31:51Z</time>
      </trkpt>
      <trkpt lat="42.39404" lon="0.03205">
        <ele>968.6</ele>
        <time>2016-07-24T09:31:52Z</time>
      </trkpt>
      <trkpt lat="42.39406" lon="0.03209">
        <ele>968.1</ele>
        <time>2016-07-24T09:31:54Z</time>
      </trkpt>
      <trkpt lat="42.39407" lon="0.03213">
        <ele>967.1</ele>
        <time>2016-07-24T09:31:57Z</time>
      </trkpt>
      <trkpt lat="42.39407" lon="0.03218">
        <ele>966.1</ele>
        <time>2016-07-24T09:31:59Z</time>
      </trkpt>
      <trkpt lat="42.39406" lon="0.03222">
        <ele>965</ele>
        <time>2016-07-24T09:32:01Z</time>
      </trkpt>
      <trkpt lat="42.39404" lon="0.03228">
        <ele>963.3</ele>
        <time>2016-07-24T09:32:03Z</time>
      </trkpt>
      <trkpt lat="42.39403" lon="0.03234">
        <ele>961.9</ele>
        <time>2016-07-24T09:32:05Z</time>
      </trkpt>
      <trkpt lat="42.39404" lon="0.03238">
        <ele>961</ele>
        <time>2016-07-24T09:32:07Z</time>
      </trkpt>
      <trkpt lat="42.39405" lon="0.03242">
        <ele>960.1</ele>
        <time>2016-07-24T09:32:10Z</time>
      </trkpt>
      <trkpt lat="42.39401" lon="0.03245">
        <ele>959.2</ele>
        <time>2016-07-24T09:32:13Z</time>
      </trkpt>
      <trkpt lat="42.39397" lon="0.03246">
        <ele>958.5</ele>
        <time>2016-07-24T09:32:15Z</time>
      </trkpt>
      <trkpt lat="42.39396" lon="0.03251">
        <ele>957.3</ele>
        <time>2016-07-24T09:32:17Z</time>
      </trkpt>
      <trkpt lat="42.39395" lon="0.03257">
        <ele>955.8</ele>
        <time>2016-07-24T09:32:19Z</time>
      </trkpt>
      <trkpt lat="42.39394" lon="0.03261">
        <ele>954.7</ele>
        <time>2016-07-24T09:32:21Z</time>
      </trkpt>
      <trkpt lat="42.39392" lon="0.03265">
        <ele>953.6</ele>
        <time>2016-07-24T09:32:23Z</time>
      </trkpt>
      <trkpt lat="42.3939" lon="0.03268">
        <ele>952.7</ele>
        <time>2016-07-24T09:32:25Z</time>
      </trkpt>
      <trkpt lat="42.3939" lon="0.03273">
        <ele>951.6</ele>
        <time>2016-07-24T09:32:34Z</time>
      </trkpt>
      <trkpt lat="42.39391" lon="0.03276">
        <ele>950.9</ele>
        <time>2016-07-24T09:32:38Z</time>
      </trkpt>
      <trkpt lat="42.39394" lon="0.03276">
        <ele>951.1</ele>
        <time>2016-07-24T09:32:43Z</time>
      </trkpt>
      <trkpt lat="42.39398" lon="0.03274">
        <ele>951.9</ele>
        <time>2016-07-24T09:32:47Z</time>
      </trkpt>
      <trkpt lat="42.39401" lon="0.03273">
        <ele>952.5</ele>
        <time>2016-07-24T09:32:49Z</time>
      </trkpt>
      <trkpt lat="42.39405" lon="0.03271">
        <ele>953.1</ele>
        <time>2016-07-24T09:32:51Z</time>
      </trkpt>
      <trkpt lat="42.39411" lon="0.03272">
        <ele>953.2</ele>
        <time>2016-07-24T09:32:53Z</time>
      </trkpt>
      <trkpt lat="42.39414" lon="0.03274">
        <ele>953</ele>
        <time>2016-07-24T09:32:54Z</time>
      </trkpt>
      <trkpt lat="42.39418" lon="0.03276">
        <ele>952.9</ele>
        <time>2016-07-24T09:32:55Z</time>
      </trkpt>
      <trkpt lat="42.39421" lon="0.03278">
        <ele>952.6</ele>
        <time>2016-07-24T09:32:56Z</time>
      </trkpt>
      <trkpt lat="42.39424" lon="0.03281">
        <ele>952.2</ele>
        <time>2016-07-24T09:32:57Z</time>
      </trkpt>
      <trkpt lat="42.39427" lon="0.03284">
        <ele>951.5</ele>
        <time>2016-07-24T09:32:59Z</time>
      </trkpt>
      <trkpt lat="42.3943" lon="0.03287">
        <ele>951.1</ele>
        <time>2016-07-24T09:33:02Z</time>
      </trkpt>
      <trkpt lat="42.39429" lon="0.03291">
        <ele>950.2</ele>
        <time>2016-07-24T09:33:15Z</time>
      </trkpt>
      <trkpt lat="42.39426" lon="0.03295">
        <ele>948.7</ele>
        <time>2016-07-24T09:33:19Z</time>
      </trkpt>
      <trkpt lat="42.39421" lon="0.03298">
        <ele>947.4</ele>
        <time>2016-07-24T09:33:21Z</time>
      </trkpt>
      <trkpt lat="42.39416" lon="0.033">
        <ele>946.4</ele>
        <time>2016-07-24T09:33:23Z</time>
      </trkpt>
      <trkpt lat="42.39413" lon="0.03302">
        <ele>945.7</ele>
        <time>2016-07-24T09:33:24Z</time>
      </trkpt>
      <trkpt lat="42.39411" lon="0.03304">
        <ele>944.9</ele>
        <time>2016-07-24T09:33:25Z</time>
      </trkpt>
      <trkpt lat="42.39408" lon="0.03306">
        <ele>944.2</ele>
        <time>2016-07-24T09:33:26Z</time>
      </trkpt>
      <trkpt lat="42.39406" lon="0.03308">
        <ele>943.3</ele>
        <time>2016-07-24T09:33:27Z</time>
      </trkpt>
      <trkpt lat="42.39404" lon="0.03311">
        <ele>942.4</ele>
        <time>2016-07-24T09:33:28Z</time>
      </trkpt>
      <trkpt lat="42.394" lon="0.03315">
        <ele>940.9</ele>
        <time>2016-07-24T09:33:30Z</time>
      </trkpt>
      <trkpt lat="42.39398" lon="0.03319">
        <ele>939.6</ele>
        <time>2016-07-24T09:33:32Z</time>
      </trkpt>
      <trkpt lat="42.39395" lon="0.03324">
        <ele>938</ele>
        <time>2016-07-24T09:33:34Z</time>
      </trkpt>
      <trkpt lat="42.39393" lon="0.03328">
        <ele>936.9</ele>
        <time>2016-07-24T09:33:35Z</time>
      </trkpt>
      <trkpt lat="42.39391" lon="0.03332">
        <ele>935.5</ele>
        <time>2016-07-24T09:33:36Z</time>
      </trkpt>
      <trkpt lat="42.39389" lon="0.03337">
        <ele>934.1</ele>
        <time>2016-07-24T09:33:37Z</time>
      </trkpt>
      <trkpt lat="42.39388" lon="0.03341">
        <ele>932.9</ele>
        <time>2016-07-24T09:33:38Z</time>
      </trkpt>
      <trkpt lat="42.39385" lon="0.03347">
        <ele>931.1</ele>
        <time>2016-07-24T09:33:40Z</time>
      </trkpt>
      <trkpt lat="42.39386" lon="0.03352">
        <ele>929.7</ele>
        <time>2016-07-24T09:33:43Z</time>
      </trkpt>
      <trkpt lat="42.3939" lon="0.03353">
        <ele>929.5</ele>
        <time>2016-07-24T09:33:45Z</time>
      </trkpt>
      <trkpt lat="42.39395" lon="0.03351">
        <ele>930.2</ele>
        <time>2016-07-24T09:33:47Z</time>
      </trkpt>
      <trkpt lat="42.39398" lon="0.0335">
        <ele>930.5</ele>
        <time>2016-07-24T09:33:48Z</time>
      </trkpt>
      <trkpt lat="42.39403" lon="0.03351">
        <ele>930.6</ele>
        <time>2016-07-24T09:33:50Z</time>
      </trkpt>
      <trkpt lat="42.39407" lon="0.03352">
        <ele>930.2</ele>
        <time>2016-07-24T09:33:52Z</time>
      </trkpt>
      <trkpt lat="42.3941" lon="0.03354">
        <ele>929.7</ele>
        <time>2016-07-24T09:33:54Z</time>
      </trkpt>
      <trkpt lat="42.39409" lon="0.0336">
        <ele>928</ele>
        <time>2016-07-24T09:33:57Z</time>
      </trkpt>
      <trkpt lat="42.39405" lon="0.03363">
        <ele>926.9</ele>
        <time>2016-07-24T09:33:59Z</time>
      </trkpt>
      <trkpt lat="42.39406" lon="0.03367">
        <ele>925.8</ele>
        <time>2016-07-24T09:34:01Z</time>
      </trkpt>
      <trkpt lat="42.3941" lon="0.03369">
        <ele>925.3</ele>
        <time>2016-07-24T09:34:03Z</time>
      </trkpt>
      <trkpt lat="42.39413" lon="0.03369">
        <ele>925.3</ele>
        <time>2016-07-24T09:34:04Z</time>
      </trkpt>
      <trkpt lat="42.39416" lon="0.03369">
        <ele>925.2</ele>
        <time>2016-07-24T09:34:05Z</time>
      </trkpt>
      <trkpt lat="42.39419" lon="0.0337">
        <ele>925.1</ele>
        <time>2016-07-24T09:34:06Z</time>
      </trkpt>
      <trkpt lat="42.39422" lon="0.03373">
        <ele>924.3</ele>
        <time>2016-07-24T09:34:08Z</time>
      </trkpt>
      <trkpt lat="42.39426" lon="0.03375">
        <ele>923.6</ele>
        <time>2016-07-24T09:34:10Z</time>
      </trkpt>
      <trkpt lat="42.39431" lon="0.03376">
        <ele>923.4</ele>
        <time>2016-07-24T09:34:12Z</time>
      </trkpt>
      <trkpt lat="42.39435" lon="0.03378">
        <ele>922.7</ele>
        <time>2016-07-24T09:34:14Z</time>
      </trkpt>
      <trkpt lat="42.3944" lon="0.03382">
        <ele>921.5</ele>
        <time>2016-07-24T09:34:16Z</time>
      </trkpt>
      <trkpt lat="42.39445" lon="0.03383">
        <ele>920.9</ele>
        <time>2016-07-24T09:34:18Z</time>
      </trkpt>
      <trkpt lat="42.39448" lon="0.03384">
        <ele>920.8</ele>
        <time>2016-07-24T09:34:19Z</time>
      </trkpt>
      <trkpt lat="42.39451" lon="0.03384">
        <ele>920.6</ele>
        <time>2016-07-24T09:34:20Z</time>
      </trkpt>
      <trkpt lat="42.39455" lon="0.03385">
        <ele>920.4</ele>
        <time>2016-07-24T09:34:22Z</time>
      </trkpt>
      <trkpt lat="42.39458" lon="0.03385">
        <ele>920.3</ele>
        <time>2016-07-24T09:34:24Z</time>
      </trkpt>
      <trkpt lat="42.39462" lon="0.03387">
        <ele>919.2</ele>
        <time>2016-07-24T09:34:26Z</time>
      </trkpt>
      <trkpt lat="42.39465" lon="0.03387">
        <ele>918.3</ele>
        <time>2016-07-24T09:34:29Z</time>
      </trkpt>
      <trkpt lat="42.39463" lon="0.03386">
        <ele>919.1</ele>
        <time>2016-07-24T09:34:48Z</time>
      </trkpt>
      <trkpt lat="42.39463" lon="0.03391">
        <ele>917.4</ele>
        <time>2016-07-24T09:35:02Z</time>
      </trkpt>
      <trkpt lat="42.39468" lon="0.03397">
        <ele>914.4</ele>
        <time>2016-07-24T09:35:29Z</time>
      </trkpt>
      <trkpt lat="42.39473" lon="0.034">
        <ele>912.9</ele>
        <time>2016-07-24T09:35:31Z</time>
      </trkpt>
      <trkpt lat="42.39477" lon="0.03403">
        <ele>911.1</ele>
        <time>2016-07-24T09:35:33Z</time>
      </trkpt>
      <trkpt lat="42.39481" lon="0.03405">
        <ele>909.8</ele>
        <time>2016-07-24T09:35:35Z</time>
      </trkpt>
      <trkpt lat="42.39484" lon="0.03406">
        <ele>908.7</ele>
        <time>2016-07-24T09:35:37Z</time>
      </trkpt>
      <trkpt lat="42.39484" lon="0.03412">
        <ele>907</ele>
        <time>2016-07-24T09:35:39Z</time>
      </trkpt>
      <trkpt lat="42.39482" lon="0.03415">
        <ele>906.3</ele>
        <time>2016-07-24T09:35:40Z</time>
      </trkpt>
      <trkpt lat="42.39479" lon="0.03418">
        <ele>905.6</ele>
        <time>2016-07-24T09:35:41Z</time>
      </trkpt>
      <trkpt lat="42.39476" lon="0.03423">
        <ele>904.2</ele>
        <time>2016-07-24T09:35:43Z</time>
      </trkpt>
      <trkpt lat="42.39474" lon="0.03429">
        <ele>902.7</ele>
        <time>2016-07-24T09:35:45Z</time>
      </trkpt>
      <trkpt lat="42.39471" lon="0.03434">
        <ele>901.3</ele>
        <time>2016-07-24T09:35:47Z</time>
      </trkpt>
      <trkpt lat="42.39472" lon="0.03438">
        <ele>899.8</ele>
        <time>2016-07-24T09:35:49Z</time>
      </trkpt>
      <trkpt lat="42.39477" lon="0.03439">
        <ele>898.7</ele>
        <time>2016-07-24T09:35:51Z</time>
      </trkpt>
      <trkpt lat="42.3948" lon="0.0344">
        <ele>898.2</ele>
        <time>2016-07-24T09:35:52Z</time>
      </trkpt>
      <trkpt lat="42.39484" lon="0.03442">
        <ele>897.1</ele>
        <time>2016-07-24T09:35:54Z</time>
      </trkpt>
      <trkpt lat="42.39487" lon="0.03446">
        <ele>895.2</ele>
        <time>2016-07-24T09:35:56Z</time>
      </trkpt>
      <trkpt lat="42.39487" lon="0.03452">
        <ele>893.3</ele>
        <time>2016-07-24T09:35:58Z</time>
      </trkpt>
      <trkpt lat="42.39484" lon="0.03453">
        <ele>893.2</ele>
        <time>2016-07-24T09:36:09Z</time>
      </trkpt>
      <trkpt lat="42.39482" lon="0.03455">
        <ele>892.8</ele>
        <time>2016-07-24T09:36:19Z</time>
      </trkpt>
      <trkpt lat="42.39482" lon="0.03459">
        <ele>891.4</ele>
        <time>2016-07-24T09:36:24Z</time>
      </trkpt>
      <trkpt lat="42.39481" lon="0.03463">
        <ele>890.2</ele>
        <time>2016-07-24T09:36:30Z</time>
      </trkpt>
      <trkpt lat="42.39482" lon="0.03467">
        <ele>889</ele>
        <time>2016-07-24T09:36:36Z</time>
      </trkpt>
      <trkpt lat="42.39483" lon="0.03472">
        <ele>887.1</ele>
        <time>2016-07-24T09:36:40Z</time>
      </trkpt>
      <trkpt lat="42.39486" lon="0.03478">
        <ele>884.8</ele>
        <time>2016-07-24T09:36:42Z</time>
      </trkpt>
      <trkpt lat="42.39489" lon="0.03484">
        <ele>882.7</ele>
        <time>2016-07-24T09:36:44Z</time>
      </trkpt>
      <trkpt lat="42.39491" lon="0.03486">
        <ele>881.8</ele>
        <time>2016-07-24T09:36:45Z</time>
      </trkpt>
      <trkpt lat="42.39493" lon="0.03489">
        <ele>880.8</ele>
        <time>2016-07-24T09:36:46Z</time>
      </trkpt>
      <trkpt lat="42.39496" lon="0.03492">
        <ele>879.7</ele>
        <time>2016-07-24T09:36:47Z</time>
      </trkpt>
      <trkpt lat="42.39497" lon="0.03495">
        <ele>878.6</ele>
        <time>2016-07-24T09:36:48Z</time>
      </trkpt>
      <trkpt lat="42.39498" lon="0.03501">
        <ele>876.5</ele>
        <time>2016-07-24T09:36:50Z</time>
      </trkpt>
      <trkpt lat="42.395" lon="0.03505">
        <ele>875</ele>
        <time>2016-07-24T09:36:52Z</time>
      </trkpt>
      <trkpt lat="42.39499" lon="0.03509">
        <ele>873.9</ele>
        <time>2016-07-24T09:37:01Z</time>
      </trkpt>
      <trkpt lat="42.39498" lon="0.03513">
        <ele>872.9</ele>
        <time>2016-07-24T09:37:07Z</time>
      </trkpt>
      <trkpt lat="42.39495" lon="0.03514">
        <ele>872.5</ele>
        <time>2016-07-24T09:37:10Z</time>
      </trkpt>
      <trkpt lat="42.39491" lon="0.03513">
        <ele>873</ele>
        <time>2016-07-24T09:37:13Z</time>
      </trkpt>
      <trkpt lat="42.39489" lon="0.03514">
        <ele>872.9</ele>
        <time>2016-07-24T09:37:17Z</time>
      </trkpt>
      <trkpt lat="42.39489" lon="0.03519">
        <ele>871.5</ele>
        <time>2016-07-24T09:37:23Z</time>
      </trkpt>
      <trkpt lat="42.3949" lon="0.03524">
        <ele>869.5</ele>
        <time>2016-07-24T09:37:26Z</time>
      </trkpt>
      <trkpt lat="42.39491" lon="0.03532">
        <ele>867.1</ele>
        <time>2016-07-24T09:37:28Z</time>
      </trkpt>
      <trkpt lat="42.39491" lon="0.03537">
        <ele>865.5</ele>
        <time>2016-07-24T09:37:29Z</time>
      </trkpt>
      <trkpt lat="42.39491" lon="0.03541">
        <ele>864</ele>
        <time>2016-07-24T09:37:30Z</time>
      </trkpt>
      <trkpt lat="42.39491" lon="0.03546">
        <ele>862.9</ele>
        <time>2016-07-24T09:37:31Z</time>
      </trkpt>
      <trkpt lat="42.39491" lon="0.03549">
        <ele>861.9</ele>
        <time>2016-07-24T09:37:32Z</time>
      </trkpt>
      <trkpt lat="42.39491" lon="0.03556">
        <ele>860.3</ele>
        <time>2016-07-24T09:37:34Z</time>
      </trkpt>
      <trkpt lat="42.3949" lon="0.03562">
        <ele>858.8</ele>
        <time>2016-07-24T09:37:36Z</time>
      </trkpt>
      <trkpt lat="42.3949" lon="0.03566">
        <ele>857.9</ele>
        <time>2016-07-24T09:37:37Z</time>
      </trkpt>
      <trkpt lat="42.39491" lon="0.03571">
        <ele>856.8</ele>
        <time>2016-07-24T09:37:38Z</time>
      </trkpt>
      <trkpt lat="42.39491" lon="0.03575">
        <ele>855.8</ele>
        <time>2016-07-24T09:37:39Z</time>
      </trkpt>
      <trkpt lat="42.39491" lon="0.03578">
        <ele>854.9</ele>
        <time>2016-07-24T09:37:40Z</time>
      </trkpt>
      <trkpt lat="42.3949" lon="0.03582">
        <ele>853.9</ele>
        <time>2016-07-24T09:37:41Z</time>
      </trkpt>
      <trkpt lat="42.39488" lon="0.03586">
        <ele>853</ele>
        <time>2016-07-24T09:37:42Z</time>
      </trkpt>
      <trkpt lat="42.39485" lon="0.0359">
        <ele>852.2</ele>
        <time>2016-07-24T09:37:43Z</time>
      </trkpt>
      <trkpt lat="42.39483" lon="0.03595">
        <ele>851.2</ele>
        <time>2016-07-24T09:37:44Z</time>
      </trkpt>
      <trkpt lat="42.3948" lon="0.03601">
        <ele>849.8</ele>
        <time>2016-07-24T09:37:45Z</time>
      </trkpt>
      <trkpt lat="42.39477" lon="0.03609">
        <ele>848.1</ele>
        <time>2016-07-24T09:37:46Z</time>
      </trkpt>
      <trkpt lat="42.39475" lon="0.03617">
        <ele>846.1</ele>
        <time>2016-07-24T09:37:47Z</time>
      </trkpt>
      <trkpt lat="42.39474" lon="0.03626">
        <ele>844.1</ele>
        <time>2016-07-24T09:37:48Z</time>
      </trkpt>
      <trkpt lat="42.39472" lon="0.03635">
        <ele>842.8</ele>
        <time>2016-07-24T09:37:49Z</time>
      </trkpt>
      <trkpt lat="42.39471" lon="0.03644">
        <ele>841.5</ele>
        <time>2016-07-24T09:37:50Z</time>
      </trkpt>
      <trkpt lat="42.39469" lon="0.03651">
        <ele>840.4</ele>
        <time>2016-07-24T09:37:51Z</time>
      </trkpt>
      <trkpt lat="42.39466" lon="0.03657">
        <ele>839.6</ele>
        <time>2016-07-24T09:37:52Z</time>
      </trkpt>
      <trkpt lat="42.39463" lon="0.03662">
        <ele>838.8</ele>
        <time>2016-07-24T09:37:53Z</time>
      </trkpt>
      <trkpt lat="42.39462" lon="0.03668">
        <ele>837.8</ele>
        <time>2016-07-24T09:37:54Z</time>
      </trkpt>
      <trkpt lat="42.3946" lon="0.03671">
        <ele>837.2</ele>
        <time>2016-07-24T09:37:55Z</time>
      </trkpt>
      <trkpt lat="42.39458" lon="0.03675">
        <ele>836.6</ele>
        <time>2016-07-24T09:37:56Z</time>
      </trkpt>
      <trkpt lat="42.39456" lon="0.03678">
        <ele>835.7</ele>
        <time>2016-07-24T09:37:58Z</time>
      </trkpt>
      <trkpt lat="42.39454" lon="0.03682">
        <ele>834.7</ele>
        <time>2016-07-24T09:38:01Z</time>
      </trkpt>
      <trkpt lat="42.3945" lon="0.03687">
        <ele>833.1</ele>
        <time>2016-07-24T09:38:03Z</time>
      </trkpt>
      <trkpt lat="42.39448" lon="0.0369">
        <ele>832.3</ele>
        <time>2016-07-24T09:38:04Z</time>
      </trkpt>
      <trkpt lat="42.39446" lon="0.03693">
        <ele>831.2</ele>
        <time>2016-07-24T09:38:05Z</time>
      </trkpt>
      <trkpt lat="42.39444" lon="0.03697">
        <ele>830.1</ele>
        <time>2016-07-24T09:38:06Z</time>
      </trkpt>
      <trkpt lat="42.39442" lon="0.03702">
        <ele>828.6</ele>
        <time>2016-07-24T09:38:07Z</time>
      </trkpt>
      <trkpt lat="42.39439" lon="0.03706">
        <ele>827.1</ele>
        <time>2016-07-24T09:38:08Z</time>
      </trkpt>
      <trkpt lat="42.39437" lon="0.0371">
        <ele>826.3</ele>
        <time>2016-07-24T09:38:09Z</time>
      </trkpt>
      <trkpt lat="42.39435" lon="0.03713">
        <ele>826.1</ele>
        <time>2016-07-24T09:38:10Z</time>
      </trkpt>
      <trkpt lat="42.39433" lon="0.03716">
        <ele>826.1</ele>
        <time>2016-07-24T09:38:11Z</time>
      </trkpt>
      <trkpt lat="42.39431" lon="0.0372">
        <ele>825.9</ele>
        <time>2016-07-24T09:38:12Z</time>
      </trkpt>
      <trkpt lat="42.39429" lon="0.03724">
        <ele>825.7</ele>
        <time>2016-07-24T09:38:13Z</time>
      </trkpt>
      <trkpt lat="42.39426" lon="0.03728">
        <ele>825.3</ele>
        <time>2016-07-24T09:38:14Z</time>
      </trkpt>
      <trkpt lat="42.39423" lon="0.03733">
        <ele>824.8</ele>
        <time>2016-07-24T09:38:15Z</time>
      </trkpt>
      <trkpt lat="42.3942" lon="0.03736">
        <ele>824.3</ele>
        <time>2016-07-24T09:38:16Z</time>
      </trkpt>
      <trkpt lat="42.39417" lon="0.0374">
        <ele>823.7</ele>
        <time>2016-07-24T09:38:17Z</time>
      </trkpt>
      <trkpt lat="42.39415" lon="0.03744">
        <ele>823.2</ele>
        <time>2016-07-24T09:38:18Z</time>
      </trkpt>
      <trkpt lat="42.39413" lon="0.03748">
        <ele>822.8</ele>
        <time>2016-07-24T09:38:19Z</time>
      </trkpt>
      <trkpt lat="42.39411" lon="0.0375">
        <ele>822.4</ele>
        <time>2016-07-24T09:38:20Z</time>
      </trkpt>
      <trkpt lat="42.39408" lon="0.03753">
        <ele>821.8</ele>
        <time>2016-07-24T09:38:21Z</time>
      </trkpt>
      <trkpt lat="42.39405" lon="0.03756">
        <ele>820.9</ele>
        <time>2016-07-24T09:38:22Z</time>
      </trkpt>
      <trkpt lat="42.39402" lon="0.0376">
        <ele>820</ele>
        <time>2016-07-24T09:38:23Z</time>
      </trkpt>
      <trkpt lat="42.394" lon="0.03763">
        <ele>819.2</ele>
        <time>2016-07-24T09:38:24Z</time>
      </trkpt>
      <trkpt lat="42.39397" lon="0.03767">
        <ele>818.3</ele>
        <time>2016-07-24T09:38:25Z</time>
      </trkpt>
      <trkpt lat="42.39394" lon="0.03771">
        <ele>817.5</ele>
        <time>2016-07-24T09:38:26Z</time>
      </trkpt>
      <trkpt lat="42.39391" lon="0.03776">
        <ele>816.5</ele>
        <time>2016-07-24T09:38:27Z</time>
      </trkpt>
      <trkpt lat="42.39388" lon="0.03781">
        <ele>815.2</ele>
        <time>2016-07-24T09:38:28Z</time>
      </trkpt>
      <trkpt lat="42.39384" lon="0.03786">
        <ele>813.9</ele>
        <time>2016-07-24T09:38:29Z</time>
      </trkpt>
      <trkpt lat="42.39381" lon="0.03792">
        <ele>812.4</ele>
        <time>2016-07-24T09:38:30Z</time>
      </trkpt>
      <trkpt lat="42.39377" lon="0.03798">
        <ele>812.1</ele>
        <time>2016-07-24T09:38:31Z</time>
      </trkpt>
      <trkpt lat="42.39374" lon="0.03804">
        <ele>812</ele>
        <time>2016-07-24T09:38:32Z</time>
      </trkpt>
      <trkpt lat="42.39371" lon="0.03809">
        <ele>812</ele>
        <time>2016-07-24T09:38:33Z</time>
      </trkpt>
      <trkpt lat="42.39368" lon="0.03815">
        <ele>812</ele>
        <time>2016-07-24T09:38:34Z</time>
      </trkpt>
      <trkpt lat="42.39365" lon="0.0382">
        <ele>812.1</ele>
        <time>2016-07-24T09:38:35Z</time>
      </trkpt>
      <trkpt lat="42.39363" lon="0.03825">
        <ele>812.4</ele>
        <time>2016-07-24T09:38:36Z</time>
      </trkpt>
      <trkpt lat="42.39361" lon="0.03831">
        <ele>812.8</ele>
        <time>2016-07-24T09:38:37Z</time>
      </trkpt>
      <trkpt lat="42.39359" lon="0.03836">
        <ele>813.1</ele>
        <time>2016-07-24T09:38:38Z</time>
      </trkpt>
      <trkpt lat="42.39356" lon="0.0384">
        <ele>813.1</ele>
        <time>2016-07-24T09:38:39Z</time>
      </trkpt>
      <trkpt lat="42.39354" lon="0.03845">
        <ele>813</ele>
        <time>2016-07-24T09:38:40Z</time>
      </trkpt>
      <trkpt lat="42.39351" lon="0.03849">
        <ele>812.9</ele>
        <time>2016-07-24T09:38:41Z</time>
      </trkpt>
      <trkpt lat="42.39347" lon="0.03853">
        <ele>812.6</ele>
        <time>2016-07-24T09:38:42Z</time>
      </trkpt>
      <trkpt lat="42.39344" lon="0.03856">
        <ele>812.2</ele>
        <time>2016-07-24T09:38:43Z</time>
      </trkpt>
      <trkpt lat="42.39341" lon="0.03858">
        <ele>811.7</ele>
        <time>2016-07-24T09:38:44Z</time>
      </trkpt>
      <trkpt lat="42.39339" lon="0.03861">
        <ele>811.3</ele>
        <time>2016-07-24T09:38:45Z</time>
      </trkpt>
      <trkpt lat="42.39336" lon="0.03864">
        <ele>810.9</ele>
        <time>2016-07-24T09:38:46Z</time>
      </trkpt>
      <trkpt lat="42.39333" lon="0.03867">
        <ele>810.7</ele>
        <time>2016-07-24T09:38:47Z</time>
      </trkpt>
      <trkpt lat="42.3933" lon="0.03871">
        <ele>810.5</ele>
        <time>2016-07-24T09:38:48Z</time>
      </trkpt>
      <trkpt lat="42.39327" lon="0.03875">
        <ele>810.5</ele>
        <time>2016-07-24T09:38:49Z</time>
      </trkpt>
      <trkpt lat="42.39325" lon="0.03879">
        <ele>810.5</ele>
        <time>2016-07-24T09:38:50Z</time>
      </trkpt>
      <trkpt lat="42.39323" lon="0.03884">
        <ele>810.7</ele>
        <time>2016-07-24T09:38:51Z</time>
      </trkpt>
      <trkpt lat="42.39322" lon="0.03888">
        <ele>811</ele>
        <time>2016-07-24T09:38:52Z</time>
      </trkpt>
      <trkpt lat="42.39321" lon="0.03891">
        <ele>811.3</ele>
        <time>2016-07-24T09:38:53Z</time>
      </trkpt>
      <trkpt lat="42.3932" lon="0.03895">
        <ele>811.7</ele>
        <time>2016-07-24T09:38:54Z</time>
      </trkpt>
      <trkpt lat="42.3932" lon="0.03899">
        <ele>812.2</ele>
        <time>2016-07-24T09:38:55Z</time>
      </trkpt>
      <trkpt lat="42.39319" lon="0.03903">
        <ele>812.7</ele>
        <time>2016-07-24T09:38:56Z</time>
      </trkpt>
      <trkpt lat="42.39319" lon="0.03907">
        <ele>813.2</ele>
        <time>2016-07-24T09:38:57Z</time>
      </trkpt>
      <trkpt lat="42.39318" lon="0.03911">
        <ele>813.6</ele>
        <time>2016-07-24T09:38:58Z</time>
      </trkpt>
      <trkpt lat="42.39317" lon="0.03916">
        <ele>814.1</ele>
        <time>2016-07-24T09:38:59Z</time>
      </trkpt>
      <trkpt lat="42.39316" lon="0.0392">
        <ele>814.5</ele>
        <time>2016-07-24T09:39:00Z</time>
      </trkpt>
      <trkpt lat="42.39316" lon="0.03924">
        <ele>815</ele>
        <time>2016-07-24T09:39:01Z</time>
      </trkpt>
      <trkpt lat="42.39315" lon="0.03928">
        <ele>815.5</ele>
        <time>2016-07-24T09:39:02Z</time>
      </trkpt>
      <trkpt lat="42.39315" lon="0.03932">
        <ele>816</ele>
        <time>2016-07-24T09:39:03Z</time>
      </trkpt>
      <trkpt lat="42.39315" lon="0.03936">
        <ele>816.8</ele>
        <time>2016-07-24T09:39:04Z</time>
      </trkpt>
      <trkpt lat="42.39316" lon="0.0394">
        <ele>817.8</ele>
        <time>2016-07-24T09:39:05Z</time>
      </trkpt>
      <trkpt lat="42.39318" lon="0.03943">
        <ele>818.8</ele>
        <time>2016-07-24T09:39:06Z</time>
      </trkpt>
      <trkpt lat="42.3932" lon="0.03947">
        <ele>820.1</ele>
        <time>2016-07-24T09:39:07Z</time>
      </trkpt>
      <trkpt lat="42.39322" lon="0.03951">
        <ele>821.5</ele>
        <time>2016-07-24T09:39:08Z</time>
      </trkpt>
      <trkpt lat="42.39325" lon="0.03955">
        <ele>823.1</ele>
        <time>2016-07-24T09:39:09Z</time>
      </trkpt>
      <trkpt lat="42.39327" lon="0.03959">
        <ele>824.5</ele>
        <time>2016-07-24T09:39:10Z</time>
      </trkpt>
      <trkpt lat="42.3933" lon="0.03962">
        <ele>825.3</ele>
        <time>2016-07-24T09:39:11Z</time>
      </trkpt>
      <trkpt lat="42.39333" lon="0.03964">
        <ele>826</ele>
        <time>2016-07-24T09:39:12Z</time>
      </trkpt>
      <trkpt lat="42.39336" lon="0.03966">
        <ele>826.8</ele>
        <time>2016-07-24T09:39:13Z</time>
      </trkpt>
      <trkpt lat="42.39338" lon="0.03968">
        <ele>827.3</ele>
        <time>2016-07-24T09:39:14Z</time>
      </trkpt>
      <trkpt lat="42.3934" lon="0.03972">
        <ele>827.7</ele>
        <time>2016-07-24T09:39:15Z</time>
      </trkpt>
      <trkpt lat="42.39342" lon="0.03977">
        <ele>827.9</ele>
        <time>2016-07-24T09:39:16Z</time>
      </trkpt>
      <trkpt lat="42.39343" lon="0.03984">
        <ele>827.7</ele>
        <time>2016-07-24T09:39:17Z</time>
      </trkpt>
      <trkpt lat="42.39344" lon="0.03991">
        <ele>827.4</ele>
        <time>2016-07-24T09:39:18Z</time>
      </trkpt>
      <trkpt lat="42.39344" lon="0.03998">
        <ele>826.9</ele>
        <time>2016-07-24T09:39:19Z</time>
      </trkpt>
      <trkpt lat="42.39344" lon="0.04005">
        <ele>826.4</ele>
        <time>2016-07-24T09:39:20Z</time>
      </trkpt>
      <trkpt lat="42.39344" lon="0.04012">
        <ele>825.9</ele>
        <time>2016-07-24T09:39:21Z</time>
      </trkpt>
      <trkpt lat="42.39344" lon="0.04019">
        <ele>825.4</ele>
        <time>2016-07-24T09:39:22Z</time>
      </trkpt>
      <trkpt lat="42.39345" lon="0.04025">
        <ele>824.9</ele>
        <time>2016-07-24T09:39:23Z</time>
      </trkpt>
      <trkpt lat="42.39344" lon="0.04032">
        <ele>824.4</ele>
        <time>2016-07-24T09:39:24Z</time>
      </trkpt>
      <trkpt lat="42.39344" lon="0.04037">
        <ele>823.9</ele>
        <time>2016-07-24T09:39:25Z</time>
      </trkpt>
      <trkpt lat="42.39344" lon="0.04042">
        <ele>823.4</ele>
        <time>2016-07-24T09:39:26Z</time>
      </trkpt>
      <trkpt lat="42.39342" lon="0.04048">
        <ele>823.2</ele>
        <time>2016-07-24T09:39:27Z</time>
      </trkpt>
      <trkpt lat="42.39341" lon="0.04053">
        <ele>823</ele>
        <time>2016-07-24T09:39:28Z</time>
      </trkpt>
      <trkpt lat="42.3934" lon="0.04057">
        <ele>822.8</ele>
        <time>2016-07-24T09:39:29Z</time>
      </trkpt>
      <trkpt lat="42.39339" lon="0.04061">
        <ele>822.8</ele>
        <time>2016-07-24T09:39:30Z</time>
      </trkpt>
      <trkpt lat="42.39339" lon="0.04066">
        <ele>822.9</ele>
        <time>2016-07-24T09:39:31Z</time>
      </trkpt>
      <trkpt lat="42.39338" lon="0.04071">
        <ele>823.1</ele>
        <time>2016-07-24T09:39:32Z</time>
      </trkpt>
      <trkpt lat="42.39337" lon="0.04076">
        <ele>823.1</ele>
        <time>2016-07-24T09:39:33Z</time>
      </trkpt>
      <trkpt lat="42.39336" lon="0.04081">
        <ele>823</ele>
        <time>2016-07-24T09:39:34Z</time>
      </trkpt>
      <trkpt lat="42.39335" lon="0.04086">
        <ele>823</ele>
        <time>2016-07-24T09:39:35Z</time>
      </trkpt>
      <trkpt lat="42.39334" lon="0.04089">
        <ele>822.7</ele>
        <time>2016-07-24T09:39:36Z</time>
      </trkpt>
      <trkpt lat="42.39332" lon="0.04093">
        <ele>822.4</ele>
        <time>2016-07-24T09:39:37Z</time>
      </trkpt>
      <trkpt lat="42.3933" lon="0.04096">
        <ele>822</ele>
        <time>2016-07-24T09:39:38Z</time>
      </trkpt>
      <trkpt lat="42.39328" lon="0.04099">
        <ele>821.4</ele>
        <time>2016-07-24T09:39:39Z</time>
      </trkpt>
      <trkpt lat="42.39325" lon="0.04102">
        <ele>820.6</ele>
        <time>2016-07-24T09:39:40Z</time>
      </trkpt>
      <trkpt lat="42.39321" lon="0.04104">
        <ele>819.6</ele>
        <time>2016-07-24T09:39:41Z</time>
      </trkpt>
      <trkpt lat="42.39317" lon="0.04107">
        <ele>818.4</ele>
        <time>2016-07-24T09:39:42Z</time>
      </trkpt>
      <trkpt lat="42.39313" lon="0.04109">
        <ele>817.3</ele>
        <time>2016-07-24T09:39:43Z</time>
      </trkpt>
      <trkpt lat="42.39309" lon="0.04111">
        <ele>816.1</ele>
        <time>2016-07-24T09:39:44Z</time>
      </trkpt>
      <trkpt lat="42.39304" lon="0.04113">
        <ele>814.8</ele>
        <time>2016-07-24T09:39:45Z</time>
      </trkpt>
      <trkpt lat="42.39299" lon="0.04116">
        <ele>813.6</ele>
        <time>2016-07-24T09:39:46Z</time>
      </trkpt>
      <trkpt lat="42.39295" lon="0.04119">
        <ele>812.6</ele>
        <time>2016-07-24T09:39:47Z</time>
      </trkpt>
      <trkpt lat="42.39292" lon="0.04123">
        <ele>811.9</ele>
        <time>2016-07-24T09:39:48Z</time>
      </trkpt>
      <trkpt lat="42.39289" lon="0.04127">
        <ele>811.8</ele>
        <time>2016-07-24T09:39:49Z</time>
      </trkpt>
      <trkpt lat="42.39287" lon="0.04132">
        <ele>812.5</ele>
        <time>2016-07-24T09:39:50Z</time>
      </trkpt>
      <trkpt lat="42.39287" lon="0.04136">
        <ele>813.2</ele>
        <time>2016-07-24T09:39:51Z</time>
      </trkpt>
      <trkpt lat="42.39286" lon="0.0414">
        <ele>814.1</ele>
        <time>2016-07-24T09:39:52Z</time>
      </trkpt>
      <trkpt lat="42.39286" lon="0.04144">
        <ele>815.1</ele>
        <time>2016-07-24T09:39:53Z</time>
      </trkpt>
      <trkpt lat="42.39287" lon="0.0415">
        <ele>816.6</ele>
        <time>2016-07-24T09:39:55Z</time>
      </trkpt>
      <trkpt lat="42.39288" lon="0.04154">
        <ele>817.8</ele>
        <time>2016-07-24T09:39:57Z</time>
      </trkpt>
      <trkpt lat="42.39288" lon="0.04159">
        <ele>819.1</ele>
        <time>2016-07-24T09:39:59Z</time>
      </trkpt>
      <trkpt lat="42.39288" lon="0.04164">
        <ele>820.3</ele>
        <time>2016-07-24T09:40:01Z</time>
      </trkpt>
      <trkpt lat="42.39287" lon="0.0417">
        <ele>821.4</ele>
        <time>2016-07-24T09:40:03Z</time>
      </trkpt>
      <trkpt lat="42.39287" lon="0.04175">
        <ele>822.4</ele>
        <time>2016-07-24T09:40:05Z</time>
      </trkpt>
      <trkpt lat="42.39286" lon="0.04179">
        <ele>823.1</ele>
        <time>2016-07-24T09:40:07Z</time>
      </trkpt>
      <trkpt lat="42.39285" lon="0.04184">
        <ele>824.1</ele>
        <time>2016-07-24T09:40:09Z</time>
      </trkpt>
      <trkpt lat="42.39284" lon="0.04189">
        <ele>824.8</ele>
        <time>2016-07-24T09:40:11Z</time>
      </trkpt>
      <trkpt lat="42.39281" lon="0.04194">
        <ele>825.2</ele>
        <time>2016-07-24T09:40:14Z</time>
      </trkpt>
      <trkpt lat="42.39279" lon="0.04197">
        <ele>825.3</ele>
        <time>2016-07-24T09:40:16Z</time>
      </trkpt>
      <trkpt lat="42.39279" lon="0.04202">
        <ele>826.2</ele>
        <time>2016-07-24T09:40:21Z</time>
      </trkpt>
      <trkpt lat="42.39278" lon="0.04205">
        <ele>826.8</ele>
        <time>2016-07-24T09:40:26Z</time>
      </trkpt>
      <trkpt lat="42.39277" lon="0.04209">
        <ele>827.3</ele>
        <time>2016-07-24T09:40:31Z</time>
      </trkpt>
      <trkpt lat="42.39277" lon="0.04213">
        <ele>827.4</ele>
        <time>2016-07-24T09:40:35Z</time>
      </trkpt>
      <trkpt lat="42.39279" lon="0.04216">
        <ele>828.2</ele>
        <time>2016-07-24T09:40:39Z</time>
      </trkpt>
      <trkpt lat="42.39283" lon="0.04219">
        <ele>829.9</ele>
        <time>2016-07-24T09:41:34Z</time>
      </trkpt>
      <trkpt lat="42.39285" lon="0.04222">
        <ele>830.7</ele>
        <time>2016-07-24T09:41:36Z</time>
      </trkpt>
      <trkpt lat="42.39287" lon="0.04226">
        <ele>831.4</ele>
        <time>2016-07-24T09:41:38Z</time>
      </trkpt>
      <trkpt lat="42.39285" lon="0.04231">
        <ele>831.2</ele>
        <time>2016-07-24T09:41:40Z</time>
      </trkpt>
      <trkpt lat="42.39281" lon="0.04234">
        <ele>830.2</ele>
        <time>2016-07-24T09:41:42Z</time>
      </trkpt>
      <trkpt lat="42.39279" lon="0.04235">
        <ele>829.5</ele>
        <time>2016-07-24T09:41:43Z</time>
      </trkpt>
      <trkpt lat="42.39276" lon="0.04236">
        <ele>828.6</ele>
        <time>2016-07-24T09:41:44Z</time>
      </trkpt>
      <trkpt lat="42.39273" lon="0.04236">
        <ele>827.7</ele>
        <time>2016-07-24T09:41:45Z</time>
      </trkpt>
      <trkpt lat="42.3927" lon="0.04239">
        <ele>826.7</ele>
        <time>2016-07-24T09:41:47Z</time>
      </trkpt>
      <trkpt lat="42.39268" lon="0.04243">
        <ele>826.4</ele>
        <time>2016-07-24T09:41:49Z</time>
      </trkpt>
      <trkpt lat="42.39264" lon="0.04247">
        <ele>825.5</ele>
        <time>2016-07-24T09:41:51Z</time>
      </trkpt>
      <trkpt lat="42.39261" lon="0.0425">
        <ele>824.6</ele>
        <time>2016-07-24T09:41:53Z</time>
      </trkpt>
      <trkpt lat="42.39256" lon="0.04255">
        <ele>823.6</ele>
        <time>2016-07-24T09:41:55Z</time>
      </trkpt>
      <trkpt lat="42.39254" lon="0.04258">
        <ele>823</ele>
        <time>2016-07-24T09:41:56Z</time>
      </trkpt>
      <trkpt lat="42.39251" lon="0.04261">
        <ele>822.4</ele>
        <time>2016-07-24T09:41:57Z</time>
      </trkpt>
      <trkpt lat="42.39249" lon="0.04264">
        <ele>821.8</ele>
        <time>2016-07-24T09:41:58Z</time>
      </trkpt>
      <trkpt lat="42.39247" lon="0.04267">
        <ele>821.3</ele>
        <time>2016-07-24T09:41:59Z</time>
      </trkpt>
      <trkpt lat="42.39245" lon="0.04273">
        <ele>821.2</ele>
        <time>2016-07-24T09:42:01Z</time>
      </trkpt>
      <trkpt lat="42.39245" lon="0.04277">
        <ele>821.6</ele>
        <time>2016-07-24T09:42:02Z</time>
      </trkpt>
      <trkpt lat="42.39246" lon="0.04281">
        <ele>822.1</ele>
        <time>2016-07-24T09:42:03Z</time>
      </trkpt>
      <trkpt lat="42.39248" lon="0.04284">
        <ele>822.7</ele>
        <time>2016-07-24T09:42:04Z</time>
      </trkpt>
      <trkpt lat="42.39249" lon="0.04288">
        <ele>823.4</ele>
        <time>2016-07-24T09:42:05Z</time>
      </trkpt>
      <trkpt lat="42.39249" lon="0.04294">
        <ele>823.4</ele>
        <time>2016-07-24T09:42:07Z</time>
      </trkpt>
      <trkpt lat="42.39247" lon="0.04298">
        <ele>822.5</ele>
        <time>2016-07-24T09:42:08Z</time>
      </trkpt>
      <trkpt lat="42.39244" lon="0.043">
        <ele>821.3</ele>
        <time>2016-07-24T09:42:09Z</time>
      </trkpt>
      <trkpt lat="42.3924" lon="0.04303">
        <ele>820.2</ele>
        <time>2016-07-24T09:42:10Z</time>
      </trkpt>
      <trkpt lat="42.39238" lon="0.04305">
        <ele>819.2</ele>
        <time>2016-07-24T09:42:11Z</time>
      </trkpt>
      <trkpt lat="42.39235" lon="0.04308">
        <ele>818.4</ele>
        <time>2016-07-24T09:42:12Z</time>
      </trkpt>
      <trkpt lat="42.39233" lon="0.04312">
        <ele>817.6</ele>
        <time>2016-07-24T09:42:13Z</time>
      </trkpt>
      <trkpt lat="42.39232" lon="0.04316">
        <ele>816.9</ele>
        <time>2016-07-24T09:42:14Z</time>
      </trkpt>
      <trkpt lat="42.3923" lon="0.04319">
        <ele>816.3</ele>
        <time>2016-07-24T09:42:15Z</time>
      </trkpt>
      <trkpt lat="42.39228" lon="0.04322">
        <ele>815.5</ele>
        <time>2016-07-24T09:42:17Z</time>
      </trkpt>
      <trkpt lat="42.39225" lon="0.04327">
        <ele>814.4</ele>
        <time>2016-07-24T09:42:19Z</time>
      </trkpt>
      <trkpt lat="42.39221" lon="0.0433">
        <ele>813.4</ele>
        <time>2016-07-24T09:42:21Z</time>
      </trkpt>
      <trkpt lat="42.39218" lon="0.04331">
        <ele>812.4</ele>
        <time>2016-07-24T09:42:24Z</time>
      </trkpt>
      <trkpt lat="42.39214" lon="0.04333">
        <ele>811.5</ele>
        <time>2016-07-24T09:42:26Z</time>
      </trkpt>
      <trkpt lat="42.39212" lon="0.04335">
        <ele>810.8</ele>
        <time>2016-07-24T09:42:28Z</time>
      </trkpt>
      <trkpt lat="42.39209" lon="0.04337">
        <ele>810.1</ele>
        <time>2016-07-24T09:42:30Z</time>
      </trkpt>
      <trkpt lat="42.39205" lon="0.04339">
        <ele>808.7</ele>
        <time>2016-07-24T09:42:32Z</time>
      </trkpt>
      <trkpt lat="42.39201" lon="0.04341">
        <ele>807.1</ele>
        <time>2016-07-24T09:42:34Z</time>
      </trkpt>
      <trkpt lat="42.39197" lon="0.04342">
        <ele>805.3</ele>
        <time>2016-07-24T09:42:36Z</time>
      </trkpt>
      <trkpt lat="42.39192" lon="0.04341">
        <ele>803.4</ele>
        <time>2016-07-24T09:42:38Z</time>
      </trkpt>
      <trkpt lat="42.39189" lon="0.04341">
        <ele>802.4</ele>
        <time>2016-07-24T09:42:39Z</time>
      </trkpt>
      <trkpt lat="42.39185" lon="0.0434">
        <ele>800.8</ele>
        <time>2016-07-24T09:42:41Z</time>
      </trkpt>
      <trkpt lat="42.3918" lon="0.0434">
        <ele>799.1</ele>
        <time>2016-07-24T09:42:43Z</time>
      </trkpt>
      <trkpt lat="42.39178" lon="0.04342">
        <ele>797.9</ele>
        <time>2016-07-24T09:42:44Z</time>
      </trkpt>
      <trkpt lat="42.39175" lon="0.04344">
        <ele>796.8</ele>
        <time>2016-07-24T09:42:45Z</time>
      </trkpt>
      <trkpt lat="42.39172" lon="0.04346">
        <ele>795.6</ele>
        <time>2016-07-24T09:42:46Z</time>
      </trkpt>
      <trkpt lat="42.39169" lon="0.04349">
        <ele>794.3</ele>
        <time>2016-07-24T09:42:47Z</time>
      </trkpt>
      <trkpt lat="42.39166" lon="0.04351">
        <ele>793.1</ele>
        <time>2016-07-24T09:42:48Z</time>
      </trkpt>
      <trkpt lat="42.39163" lon="0.04353">
        <ele>791.8</ele>
        <time>2016-07-24T09:42:49Z</time>
      </trkpt>
      <trkpt lat="42.39159" lon="0.04356">
        <ele>790.2</ele>
        <time>2016-07-24T09:42:50Z</time>
      </trkpt>
      <trkpt lat="42.39156" lon="0.04358">
        <ele>788.9</ele>
        <time>2016-07-24T09:42:51Z</time>
      </trkpt>
      <trkpt lat="42.39153" lon="0.04361">
        <ele>787.5</ele>
        <time>2016-07-24T09:42:52Z</time>
      </trkpt>
      <trkpt lat="42.39149" lon="0.04364">
        <ele>786.1</ele>
        <time>2016-07-24T09:42:53Z</time>
      </trkpt>
      <trkpt lat="42.39146" lon="0.04368">
        <ele>784.5</ele>
        <time>2016-07-24T09:42:54Z</time>
      </trkpt>
      <trkpt lat="42.39143" lon="0.04372">
        <ele>783.2</ele>
        <time>2016-07-24T09:42:55Z</time>
      </trkpt>
      <trkpt lat="42.3914" lon="0.04378">
        <ele>782</ele>
        <time>2016-07-24T09:42:56Z</time>
      </trkpt>
      <trkpt lat="42.39137" lon="0.04384">
        <ele>780.9</ele>
        <time>2016-07-24T09:42:57Z</time>
      </trkpt>
      <trkpt lat="42.39134" lon="0.0439">
        <ele>779.6</ele>
        <time>2016-07-24T09:42:58Z</time>
      </trkpt>
      <trkpt lat="42.3913" lon="0.04395">
        <ele>778.2</ele>
        <time>2016-07-24T09:42:59Z</time>
      </trkpt>
      <trkpt lat="42.39126" lon="0.04399">
        <ele>777</ele>
        <time>2016-07-24T09:43:00Z</time>
      </trkpt>
      <trkpt lat="42.39123" lon="0.04403">
        <ele>775.9</ele>
        <time>2016-07-24T09:43:01Z</time>
      </trkpt>
      <trkpt lat="42.39122" lon="0.04408">
        <ele>775.3</ele>
        <time>2016-07-24T09:43:03Z</time>
      </trkpt>
      <trkpt lat="42.39123" lon="0.04413">
        <ele>776.2</ele>
        <time>2016-07-24T09:43:05Z</time>
      </trkpt>
      <trkpt lat="42.39126" lon="0.04419">
        <ele>777.4</ele>
        <time>2016-07-24T09:43:07Z</time>
      </trkpt>
      <trkpt lat="42.39127" lon="0.04423">
        <ele>777.7</ele>
        <time>2016-07-24T09:43:09Z</time>
      </trkpt>
      <trkpt lat="42.39123" lon="0.04424">
        <ele>776.3</ele>
        <time>2016-07-24T09:43:11Z</time>
      </trkpt>
      <trkpt lat="42.39118" lon="0.04423">
        <ele>774.2</ele>
        <time>2016-07-24T09:43:13Z</time>
      </trkpt>
      <trkpt lat="42.39115" lon="0.04422">
        <ele>772.9</ele>
        <time>2016-07-24T09:43:14Z</time>
      </trkpt>
      <trkpt lat="42.39112" lon="0.04422">
        <ele>771.7</ele>
        <time>2016-07-24T09:43:15Z</time>
      </trkpt>
      <trkpt lat="42.39107" lon="0.04422">
        <ele>769.5</ele>
        <time>2016-07-24T09:43:17Z</time>
      </trkpt>
      <trkpt lat="42.39105" lon="0.04425">
        <ele>768.5</ele>
        <time>2016-07-24T09:43:20Z</time>
      </trkpt>
      <trkpt lat="42.39105" lon="0.04431">
        <ele>768.9</ele>
        <time>2016-07-24T09:43:22Z</time>
      </trkpt>
      <trkpt lat="42.39106" lon="0.04438">
        <ele>769.5</ele>
        <time>2016-07-24T09:43:24Z</time>
      </trkpt>
      <trkpt lat="42.39108" lon="0.04441">
        <ele>770.2</ele>
        <time>2016-07-24T09:43:26Z</time>
      </trkpt>
      <trkpt lat="42.39105" lon="0.04446">
        <ele>769.4</ele>
        <time>2016-07-24T09:43:28Z</time>
      </trkpt>
      <trkpt lat="42.39102" lon="0.04448">
        <ele>768.1</ele>
        <time>2016-07-24T09:43:29Z</time>
      </trkpt>
      <trkpt lat="42.39099" lon="0.04448">
        <ele>766.5</ele>
        <time>2016-07-24T09:43:30Z</time>
      </trkpt>
      <trkpt lat="42.39096" lon="0.04447">
        <ele>765.3</ele>
        <time>2016-07-24T09:43:31Z</time>
      </trkpt>
      <trkpt lat="42.39093" lon="0.04444">
        <ele>764.1</ele>
        <time>2016-07-24T09:43:33Z</time>
      </trkpt>
      <trkpt lat="42.39093" lon="0.0444">
        <ele>764</ele>
        <time>2016-07-24T09:43:37Z</time>
      </trkpt>
      <trkpt lat="42.39092" lon="0.04436">
        <ele>763.4</ele>
        <time>2016-07-24T09:43:42Z</time>
      </trkpt>
      <trkpt lat="42.39089" lon="0.04433">
        <ele>762.1</ele>
        <time>2016-07-24T09:43:44Z</time>
      </trkpt>
      <trkpt lat="42.39085" lon="0.0443">
        <ele>760.1</ele>
        <time>2016-07-24T09:43:46Z</time>
      </trkpt>
      <trkpt lat="42.39081" lon="0.04429">
        <ele>758.6</ele>
        <time>2016-07-24T09:43:48Z</time>
      </trkpt>
      <trkpt lat="42.39078" lon="0.04431">
        <ele>757.1</ele>
        <time>2016-07-24T09:43:50Z</time>
      </trkpt>
      <trkpt lat="42.39077" lon="0.04435">
        <ele>756.9</ele>
        <time>2016-07-24T09:43:51Z</time>
      </trkpt>
      <trkpt lat="42.39076" lon="0.04439">
        <ele>756.8</ele>
        <time>2016-07-24T09:43:52Z</time>
      </trkpt>
      <trkpt lat="42.39076" lon="0.04444">
        <ele>757</ele>
        <time>2016-07-24T09:43:53Z</time>
      </trkpt>
      <trkpt lat="42.39076" lon="0.04448">
        <ele>757.1</ele>
        <time>2016-07-24T09:43:54Z</time>
      </trkpt>
      <trkpt lat="42.39076" lon="0.04452">
        <ele>757.3</ele>
        <time>2016-07-24T09:43:55Z</time>
      </trkpt>
      <trkpt lat="42.39077" lon="0.04457">
        <ele>757.8</ele>
        <time>2016-07-24T09:43:57Z</time>
      </trkpt>
      <trkpt lat="42.39077" lon="0.04462">
        <ele>757.6</ele>
        <time>2016-07-24T09:43:59Z</time>
      </trkpt>
      <trkpt lat="42.39078" lon="0.04466">
        <ele>757.6</ele>
        <time>2016-07-24T09:44:01Z</time>
      </trkpt>
      <trkpt lat="42.39079" lon="0.0447">
        <ele>757.6</ele>
        <time>2016-07-24T09:44:06Z</time>
      </trkpt>
      <trkpt lat="42.39077" lon="0.04473">
        <ele>756.5</ele>
        <time>2016-07-24T09:44:08Z</time>
      </trkpt>
      <trkpt lat="42.39077" lon="0.04479">
        <ele>755.9</ele>
        <time>2016-07-24T09:44:10Z</time>
      </trkpt>
      <trkpt lat="42.39079" lon="0.04482">
        <ele>756.3</ele>
        <time>2016-07-24T09:44:11Z</time>
      </trkpt>
      <trkpt lat="42.39082" lon="0.04485">
        <ele>757.1</ele>
        <time>2016-07-24T09:44:12Z</time>
      </trkpt>
      <trkpt lat="42.39086" lon="0.04487">
        <ele>758.4</ele>
        <time>2016-07-24T09:44:13Z</time>
      </trkpt>
      <trkpt lat="42.3909" lon="0.0449">
        <ele>759.6</ele>
        <time>2016-07-24T09:44:14Z</time>
      </trkpt>
      <trkpt lat="42.39093" lon="0.04493">
        <ele>760.5</ele>
        <time>2016-07-24T09:44:15Z</time>
      </trkpt>
      <trkpt lat="42.39097" lon="0.04495">
        <ele>761.3</ele>
        <time>2016-07-24T09:44:16Z</time>
      </trkpt>
      <trkpt lat="42.391" lon="0.04498">
        <ele>762.1</ele>
        <time>2016-07-24T09:44:17Z</time>
      </trkpt>
      <trkpt lat="42.39104" lon="0.045">
        <ele>763.4</ele>
        <time>2016-07-24T09:44:18Z</time>
      </trkpt>
      <trkpt lat="42.39109" lon="0.045">
        <ele>765</ele>
        <time>2016-07-24T09:44:19Z</time>
      </trkpt>
      <trkpt lat="42.39113" lon="0.045">
        <ele>766.5</ele>
        <time>2016-07-24T09:44:20Z</time>
      </trkpt>
      <trkpt lat="42.39117" lon="0.045">
        <ele>767.6</ele>
        <time>2016-07-24T09:44:21Z</time>
      </trkpt>
      <trkpt lat="42.3912" lon="0.04501">
        <ele>768.5</ele>
        <time>2016-07-24T09:44:23Z</time>
      </trkpt>
      <trkpt lat="42.39117" lon="0.04503">
        <ele>767.3</ele>
        <time>2016-07-24T09:44:25Z</time>
      </trkpt>
      <trkpt lat="42.39114" lon="0.04504">
        <ele>766.1</ele>
        <time>2016-07-24T09:44:26Z</time>
      </trkpt>
      <trkpt lat="42.39111" lon="0.04504">
        <ele>765.1</ele>
        <time>2016-07-24T09:44:27Z</time>
      </trkpt>
      <trkpt lat="42.39108" lon="0.04505">
        <ele>764.1</ele>
        <time>2016-07-24T09:44:28Z</time>
      </trkpt>
      <trkpt lat="42.39105" lon="0.04506">
        <ele>762.8</ele>
        <time>2016-07-24T09:44:29Z</time>
      </trkpt>
      <trkpt lat="42.39101" lon="0.04506">
        <ele>761.5</ele>
        <time>2016-07-24T09:44:30Z</time>
      </trkpt>
      <trkpt lat="42.39097" lon="0.04507">
        <ele>760.2</ele>
        <time>2016-07-24T09:44:31Z</time>
      </trkpt>
      <trkpt lat="42.39094" lon="0.04507">
        <ele>759.1</ele>
        <time>2016-07-24T09:44:32Z</time>
      </trkpt>
      <trkpt lat="42.39091" lon="0.04508">
        <ele>758.1</ele>
        <time>2016-07-24T09:44:33Z</time>
      </trkpt>
      <trkpt lat="42.39089" lon="0.04509">
        <ele>757</ele>
        <time>2016-07-24T09:44:34Z</time>
      </trkpt>
      <trkpt lat="42.39084" lon="0.04512">
        <ele>755.1</ele>
        <time>2016-07-24T09:44:36Z</time>
      </trkpt>
      <trkpt lat="42.39079" lon="0.04514">
        <ele>753.4</ele>
        <time>2016-07-24T09:44:38Z</time>
      </trkpt>
      <trkpt lat="42.39076" lon="0.04515">
        <ele>752.4</ele>
        <time>2016-07-24T09:44:39Z</time>
      </trkpt>
      <trkpt lat="42.39072" lon="0.04516">
        <ele>751.1</ele>
        <time>2016-07-24T09:44:40Z</time>
      </trkpt>
      <trkpt lat="42.39069" lon="0.04516">
        <ele>750</ele>
        <time>2016-07-24T09:44:41Z</time>
      </trkpt>
      <trkpt lat="42.39064" lon="0.04516">
        <ele>748.7</ele>
        <time>2016-07-24T09:44:42Z</time>
      </trkpt>
      <trkpt lat="42.39061" lon="0.04516">
        <ele>747.7</ele>
        <time>2016-07-24T09:44:43Z</time>
      </trkpt>
      <trkpt lat="42.39059" lon="0.04516">
        <ele>746.9</ele>
        <time>2016-07-24T09:44:44Z</time>
      </trkpt>
      <trkpt lat="42.39053" lon="0.04516">
        <ele>745.2</ele>
        <time>2016-07-24T09:44:46Z</time>
      </trkpt>
      <trkpt lat="42.39049" lon="0.04514">
        <ele>743.9</ele>
        <time>2016-07-24T09:44:48Z</time>
      </trkpt>
      <trkpt lat="42.39044" lon="0.04512">
        <ele>742.3</ele>
        <time>2016-07-24T09:44:50Z</time>
      </trkpt>
      <trkpt lat="42.39041" lon="0.04509">
        <ele>741.7</ele>
        <time>2016-07-24T09:44:51Z</time>
      </trkpt>
      <trkpt lat="42.3904" lon="0.04505">
        <ele>741.1</ele>
        <time>2016-07-24T09:44:52Z</time>
      </trkpt>
      <trkpt lat="42.39038" lon="0.04501">
        <ele>740.3</ele>
        <time>2016-07-24T09:44:53Z</time>
      </trkpt>
      <trkpt lat="42.39035" lon="0.04498">
        <ele>739.3</ele>
        <time>2016-07-24T09:44:54Z</time>
      </trkpt>
      <trkpt lat="42.39033" lon="0.04495">
        <ele>738.4</ele>
        <time>2016-07-24T09:44:55Z</time>
      </trkpt>
      <trkpt lat="42.39029" lon="0.04493">
        <ele>737.2</ele>
        <time>2016-07-24T09:44:57Z</time>
      </trkpt>
      <trkpt lat="42.39026" lon="0.04489">
        <ele>736.1</ele>
        <time>2016-07-24T09:44:59Z</time>
      </trkpt>
      <trkpt lat="42.39023" lon="0.04486">
        <ele>734.7</ele>
        <time>2016-07-24T09:45:01Z</time>
      </trkpt>
      <trkpt lat="42.3902" lon="0.04488">
        <ele>733.6</ele>
        <time>2016-07-24T09:45:03Z</time>
      </trkpt>
      <trkpt lat="42.3902" lon="0.04495">
        <ele>733.5</ele>
        <time>2016-07-24T09:45:05Z</time>
      </trkpt>
      <trkpt lat="42.39021" lon="0.045">
        <ele>733.8</ele>
        <time>2016-07-24T09:45:06Z</time>
      </trkpt>
      <trkpt lat="42.39022" lon="0.04505">
        <ele>734</ele>
        <time>2016-07-24T09:45:07Z</time>
      </trkpt>
      <trkpt lat="42.39022" lon="0.04511">
        <ele>734</ele>
        <time>2016-07-24T09:45:08Z</time>
      </trkpt>
      <trkpt lat="42.39022" lon="0.04516">
        <ele>733.6</ele>
        <time>2016-07-24T09:45:09Z</time>
      </trkpt>
      <trkpt lat="42.39021" lon="0.04519">
        <ele>733.1</ele>
        <time>2016-07-24T09:45:10Z</time>
      </trkpt>
      <trkpt lat="42.39018" lon="0.04525">
        <ele>731.9</ele>
        <time>2016-07-24T09:45:12Z</time>
      </trkpt>
      <trkpt lat="42.39018" lon="0.04531">
        <ele>731.7</ele>
        <time>2016-07-24T09:45:14Z</time>
      </trkpt>
      <trkpt lat="42.3902" lon="0.04533">
        <ele>732.3</ele>
        <time>2016-07-24T09:45:15Z</time>
      </trkpt>
      <trkpt lat="42.39022" lon="0.04537">
        <ele>733.1</ele>
        <time>2016-07-24T09:45:16Z</time>
      </trkpt>
      <trkpt lat="42.39024" lon="0.04541">
        <ele>733.6</ele>
        <time>2016-07-24T09:45:17Z</time>
      </trkpt>
      <trkpt lat="42.39024" lon="0.04547">
        <ele>733.3</ele>
        <time>2016-07-24T09:45:18Z</time>
      </trkpt>
      <trkpt lat="42.39024" lon="0.04552">
        <ele>732.5</ele>
        <time>2016-07-24T09:45:19Z</time>
      </trkpt>
      <trkpt lat="42.39023" lon="0.04556">
        <ele>731.9</ele>
        <time>2016-07-24T09:45:20Z</time>
      </trkpt>
      <trkpt lat="42.39024" lon="0.04563">
        <ele>731.6</ele>
        <time>2016-07-24T09:45:22Z</time>
      </trkpt>
      <trkpt lat="42.39027" lon="0.04569">
        <ele>731.9</ele>
        <time>2016-07-24T09:45:24Z</time>
      </trkpt>
      <trkpt lat="42.39028" lon="0.04575">
        <ele>731.5</ele>
        <time>2016-07-24T09:45:26Z</time>
      </trkpt>
      <trkpt lat="42.39028" lon="0.04579">
        <ele>731.1</ele>
        <time>2016-07-24T09:45:27Z</time>
      </trkpt>
      <trkpt lat="42.39028" lon="0.04583">
        <ele>730.8</ele>
        <time>2016-07-24T09:45:28Z</time>
      </trkpt>
      <trkpt lat="42.39029" lon="0.04587">
        <ele>730.6</ele>
        <time>2016-07-24T09:45:29Z</time>
      </trkpt>
      <trkpt lat="42.3903" lon="0.0459">
        <ele>730.7</ele>
        <time>2016-07-24T09:45:30Z</time>
      </trkpt>
      <trkpt lat="42.39032" lon="0.04594">
        <ele>730.9</ele>
        <time>2016-07-24T09:45:31Z</time>
      </trkpt>
      <trkpt lat="42.39034" lon="0.04598">
        <ele>731.2</ele>
        <time>2016-07-24T09:45:32Z</time>
      </trkpt>
      <trkpt lat="42.39037" lon="0.04601">
        <ele>731.6</ele>
        <time>2016-07-24T09:45:33Z</time>
      </trkpt>
      <trkpt lat="42.39036" lon="0.04605">
        <ele>730.8</ele>
        <time>2016-07-24T09:45:36Z</time>
      </trkpt>
      <trkpt lat="42.39032" lon="0.04606">
        <ele>729.5</ele>
        <time>2016-07-24T09:45:38Z</time>
      </trkpt>
      <trkpt lat="42.39029" lon="0.04611">
        <ele>728</ele>
        <time>2016-07-24T09:45:40Z</time>
      </trkpt>
      <trkpt lat="42.39027" lon="0.04614">
        <ele>727</ele>
        <time>2016-07-24T09:45:41Z</time>
      </trkpt>
      <trkpt lat="42.39024" lon="0.04615">
        <ele>725.9</ele>
        <time>2016-07-24T09:45:42Z</time>
      </trkpt>
      <trkpt lat="42.39021" lon="0.04615">
        <ele>725</ele>
        <time>2016-07-24T09:45:43Z</time>
      </trkpt>
      <trkpt lat="42.39017" lon="0.04613">
        <ele>724.2</ele>
        <time>2016-07-24T09:45:44Z</time>
      </trkpt>
      <trkpt lat="42.39014" lon="0.0461">
        <ele>723.2</ele>
        <time>2016-07-24T09:45:45Z</time>
      </trkpt>
      <trkpt lat="42.3901" lon="0.04607">
        <ele>722.4</ele>
        <time>2016-07-24T09:45:46Z</time>
      </trkpt>
      <trkpt lat="42.39006" lon="0.04604">
        <ele>721.6</ele>
        <time>2016-07-24T09:45:47Z</time>
      </trkpt>
      <trkpt lat="42.38999" lon="0.04602">
        <ele>719.4</ele>
        <time>2016-07-24T09:45:49Z</time>
      </trkpt>
      <trkpt lat="42.38996" lon="0.04601">
        <ele>718.5</ele>
        <time>2016-07-24T09:45:50Z</time>
      </trkpt>
      <trkpt lat="42.38993" lon="0.046">
        <ele>717.4</ele>
        <time>2016-07-24T09:45:51Z</time>
      </trkpt>
      <trkpt lat="42.38989" lon="0.04599">
        <ele>716.3</ele>
        <time>2016-07-24T09:45:52Z</time>
      </trkpt>
      <trkpt lat="42.38985" lon="0.04597">
        <ele>715.2</ele>
        <time>2016-07-24T09:45:53Z</time>
      </trkpt>
      <trkpt lat="42.38982" lon="0.04595">
        <ele>714.1</ele>
        <time>2016-07-24T09:45:54Z</time>
      </trkpt>
      <trkpt lat="42.38978" lon="0.04593">
        <ele>713</ele>
        <time>2016-07-24T09:45:55Z</time>
      </trkpt>
      <trkpt lat="42.38975" lon="0.04593">
        <ele>711.9</ele>
        <time>2016-07-24T09:45:56Z</time>
      </trkpt>
      <trkpt lat="42.38972" lon="0.04595">
        <ele>710.9</ele>
        <time>2016-07-24T09:45:57Z</time>
      </trkpt>
      <trkpt lat="42.3897" lon="0.04598">
        <ele>710</ele>
        <time>2016-07-24T09:45:58Z</time>
      </trkpt>
      <trkpt lat="42.38968" lon="0.04603">
        <ele>709.3</ele>
        <time>2016-07-24T09:45:59Z</time>
      </trkpt>
      <trkpt lat="42.38966" lon="0.04607">
        <ele>708.7</ele>
        <time>2016-07-24T09:46:00Z</time>
      </trkpt>
      <trkpt lat="42.38963" lon="0.04612">
        <ele>707.4</ele>
        <time>2016-07-24T09:46:02Z</time>
      </trkpt>
      <trkpt lat="42.38959" lon="0.04616">
        <ele>706.3</ele>
        <time>2016-07-24T09:46:04Z</time>
      </trkpt>
      <trkpt lat="42.38958" lon="0.04619">
        <ele>706.1</ele>
        <time>2016-07-24T09:46:05Z</time>
      </trkpt>
      <trkpt lat="42.38957" lon="0.04624">
        <ele>706</ele>
        <time>2016-07-24T09:46:06Z</time>
      </trkpt>
      <trkpt lat="42.38957" lon="0.04628">
        <ele>705.9</ele>
        <time>2016-07-24T09:46:07Z</time>
      </trkpt>
      <trkpt lat="42.38957" lon="0.04634">
        <ele>705.7</ele>
        <time>2016-07-24T09:46:08Z</time>
      </trkpt>
      <trkpt lat="42.38958" lon="0.0464">
        <ele>705.4</ele>
        <time>2016-07-24T09:46:09Z</time>
      </trkpt>
      <trkpt lat="42.38957" lon="0.04647">
        <ele>705.2</ele>
        <time>2016-07-24T09:46:10Z</time>
      </trkpt>
      <trkpt lat="42.38955" lon="0.04653">
        <ele>704.9</ele>
        <time>2016-07-24T09:46:11Z</time>
      </trkpt>
      <trkpt lat="42.38954" lon="0.04657">
        <ele>704.6</ele>
        <time>2016-07-24T09:46:12Z</time>
      </trkpt>
      <trkpt lat="42.38952" lon="0.04662">
        <ele>704.3</ele>
        <time>2016-07-24T09:46:13Z</time>
      </trkpt>
      <trkpt lat="42.38952" lon="0.04666">
        <ele>704.1</ele>
        <time>2016-07-24T09:46:14Z</time>
      </trkpt>
      <trkpt lat="42.38953" lon="0.04671">
        <ele>703.9</ele>
        <time>2016-07-24T09:46:15Z</time>
      </trkpt>
      <trkpt lat="42.38953" lon="0.04676">
        <ele>703.7</ele>
        <time>2016-07-24T09:46:16Z</time>
      </trkpt>
      <trkpt lat="42.38954" lon="0.04681">
        <ele>703.6</ele>
        <time>2016-07-24T09:46:17Z</time>
      </trkpt>
      <trkpt lat="42.38953" lon="0.04686">
        <ele>703.2</ele>
        <time>2016-07-24T09:46:18Z</time>
      </trkpt>
      <trkpt lat="42.38951" lon="0.04691">
        <ele>702.8</ele>
        <time>2016-07-24T09:46:19Z</time>
      </trkpt>
      <trkpt lat="42.38949" lon="0.04695">
        <ele>702.4</ele>
        <time>2016-07-24T09:46:20Z</time>
      </trkpt>
      <trkpt lat="42.38946" lon="0.04699">
        <ele>701.8</ele>
        <time>2016-07-24T09:46:21Z</time>
      </trkpt>
      <trkpt lat="42.38943" lon="0.04702">
        <ele>701.1</ele>
        <time>2016-07-24T09:46:22Z</time>
      </trkpt>
      <trkpt lat="42.3894" lon="0.04706">
        <ele>700.6</ele>
        <time>2016-07-24T09:46:23Z</time>
      </trkpt>
      <trkpt lat="42.38938" lon="0.04709">
        <ele>700.1</ele>
        <time>2016-07-24T09:46:24Z</time>
      </trkpt>
      <trkpt lat="42.38937" lon="0.04713">
        <ele>699.8</ele>
        <time>2016-07-24T09:46:25Z</time>
      </trkpt>
      <trkpt lat="42.38936" lon="0.04718">
        <ele>699.6</ele>
        <time>2016-07-24T09:46:26Z</time>
      </trkpt>
      <trkpt lat="42.38936" lon="0.04722">
        <ele>699.4</ele>
        <time>2016-07-24T09:46:27Z</time>
      </trkpt>
      <trkpt lat="42.38936" lon="0.04727">
        <ele>699.2</ele>
        <time>2016-07-24T09:46:28Z</time>
      </trkpt>
      <trkpt lat="42.38935" lon="0.04733">
        <ele>698.9</ele>
        <time>2016-07-24T09:46:29Z</time>
      </trkpt>
      <trkpt lat="42.38934" lon="0.04737">
        <ele>698.7</ele>
        <time>2016-07-24T09:46:30Z</time>
      </trkpt>
      <trkpt lat="42.38933" lon="0.04742">
        <ele>698.4</ele>
        <time>2016-07-24T09:46:31Z</time>
      </trkpt>
      <trkpt lat="42.38932" lon="0.04746">
        <ele>698.1</ele>
        <time>2016-07-24T09:46:32Z</time>
      </trkpt>
      <trkpt lat="42.3893" lon="0.0475">
        <ele>697.8</ele>
        <time>2016-07-24T09:46:33Z</time>
      </trkpt>
      <trkpt lat="42.38929" lon="0.04753">
        <ele>697.6</ele>
        <time>2016-07-24T09:46:34Z</time>
      </trkpt>
      <trkpt lat="42.38928" lon="0.04757">
        <ele>697.3</ele>
        <time>2016-07-24T09:46:35Z</time>
      </trkpt>
      <trkpt lat="42.38927" lon="0.04761">
        <ele>697</ele>
        <time>2016-07-24T09:46:36Z</time>
      </trkpt>
      <trkpt lat="42.38926" lon="0.04766">
        <ele>696.7</ele>
        <time>2016-07-24T09:46:37Z</time>
      </trkpt>
      <trkpt lat="42.38925" lon="0.04771">
        <ele>696.6</ele>
        <time>2016-07-24T09:46:38Z</time>
      </trkpt>
      <trkpt lat="42.38926" lon="0.04776">
        <ele>696.5</ele>
        <time>2016-07-24T09:46:39Z</time>
      </trkpt>
      <trkpt lat="42.38927" lon="0.04781">
        <ele>696.5</ele>
        <time>2016-07-24T09:46:40Z</time>
      </trkpt>
      <trkpt lat="42.38928" lon="0.04784">
        <ele>696.6</ele>
        <time>2016-07-24T09:46:41Z</time>
      </trkpt>
      <trkpt lat="42.3893" lon="0.04787">
        <ele>696.7</ele>
        <time>2016-07-24T09:46:42Z</time>
      </trkpt>
      <trkpt lat="42.38931" lon="0.04791">
        <ele>696.7</ele>
        <time>2016-07-24T09:46:43Z</time>
      </trkpt>
      <trkpt lat="42.38932" lon="0.04796">
        <ele>696.6</ele>
        <time>2016-07-24T09:46:44Z</time>
      </trkpt>
      <trkpt lat="42.38933" lon="0.048">
        <ele>696.3</ele>
        <time>2016-07-24T09:46:45Z</time>
      </trkpt>
      <trkpt lat="42.38933" lon="0.04804">
        <ele>696</ele>
        <time>2016-07-24T09:46:46Z</time>
      </trkpt>
      <trkpt lat="42.38932" lon="0.04808">
        <ele>695.7</ele>
        <time>2016-07-24T09:46:47Z</time>
      </trkpt>
      <trkpt lat="42.38931" lon="0.04815">
        <ele>695.1</ele>
        <time>2016-07-24T09:46:49Z</time>
      </trkpt>
      <trkpt lat="42.38931" lon="0.04819">
        <ele>694.8</ele>
        <time>2016-07-24T09:46:50Z</time>
      </trkpt>
      <trkpt lat="42.38931" lon="0.04824">
        <ele>694.5</ele>
        <time>2016-07-24T09:46:51Z</time>
      </trkpt>
      <trkpt lat="42.38931" lon="0.04829">
        <ele>694.2</ele>
        <time>2016-07-24T09:46:52Z</time>
      </trkpt>
      <trkpt lat="42.38931" lon="0.04833">
        <ele>693.9</ele>
        <time>2016-07-24T09:46:53Z</time>
      </trkpt>
      <trkpt lat="42.38931" lon="0.04837">
        <ele>693.6</ele>
        <time>2016-07-24T09:46:54Z</time>
      </trkpt>
      <trkpt lat="42.3893" lon="0.04841">
        <ele>693.2</ele>
        <time>2016-07-24T09:46:55Z</time>
      </trkpt>
      <trkpt lat="42.38928" lon="0.04845">
        <ele>692.8</ele>
        <time>2016-07-24T09:46:56Z</time>
      </trkpt>
      <trkpt lat="42.38927" lon="0.0485">
        <ele>692.3</ele>
        <time>2016-07-24T09:46:57Z</time>
      </trkpt>
      <trkpt lat="42.38926" lon="0.04855">
        <ele>691.9</ele>
        <time>2016-07-24T09:46:58Z</time>
      </trkpt>
      <trkpt lat="42.38925" lon="0.04859">
        <ele>691.5</ele>
        <time>2016-07-24T09:46:59Z</time>
      </trkpt>
      <trkpt lat="42.38923" lon="0.04863">
        <ele>691</ele>
        <time>2016-07-24T09:47:00Z</time>
      </trkpt>
      <trkpt lat="42.3892" lon="0.04868">
        <ele>690.3</ele>
        <time>2016-07-24T09:47:02Z</time>
      </trkpt>
      <trkpt lat="42.38919" lon="0.04872">
        <ele>690</ele>
        <time>2016-07-24T09:47:03Z</time>
      </trkpt>
      <trkpt lat="42.38919" lon="0.04876">
        <ele>689.7</ele>
        <time>2016-07-24T09:47:04Z</time>
      </trkpt>
      <trkpt lat="42.38918" lon="0.0488">
        <ele>689.2</ele>
        <time>2016-07-24T09:47:05Z</time>
      </trkpt>
      <trkpt lat="42.38917" lon="0.04884">
        <ele>688.6</ele>
        <time>2016-07-24T09:47:06Z</time>
      </trkpt>
      <trkpt lat="42.38915" lon="0.04888">
        <ele>688</ele>
        <time>2016-07-24T09:47:07Z</time>
      </trkpt>
      <trkpt lat="42.38914" lon="0.04892">
        <ele>687.5</ele>
        <time>2016-07-24T09:47:08Z</time>
      </trkpt>
      <trkpt lat="42.38912" lon="0.04898">
        <ele>686.7</ele>
        <time>2016-07-24T09:47:10Z</time>
      </trkpt>
      <trkpt lat="42.38912" lon="0.04903">
        <ele>686.2</ele>
        <time>2016-07-24T09:47:12Z</time>
      </trkpt>
      <trkpt lat="42.3891" lon="0.049">
        <ele>686.3</ele>
        <time>2016-07-24T09:47:15Z</time>
      </trkpt>
      <trkpt lat="42.38909" lon="0.04896">
        <ele>686.6</ele>
        <time>2016-07-24T09:47:18Z</time>
      </trkpt>
      <trkpt lat="42.38907" lon="0.04899">
        <ele>686</ele>
        <time>2016-07-24T09:47:23Z</time>
      </trkpt>
      <trkpt lat="42.38908" lon="0.04903">
        <ele>685.7</ele>
        <time>2016-07-24T09:47:24Z</time>
      </trkpt>
      <trkpt lat="42.38908" lon="0.04907">
        <ele>685.4</ele>
        <time>2016-07-24T09:47:25Z</time>
      </trkpt>
      <trkpt lat="42.3891" lon="0.04914">
        <ele>684.8</ele>
        <time>2016-07-24T09:47:27Z</time>
      </trkpt>
      <trkpt lat="42.38912" lon="0.04919">
        <ele>684.5</ele>
        <time>2016-07-24T09:47:29Z</time>
      </trkpt>
      <trkpt lat="42.38915" lon="0.04923">
        <ele>684.5</ele>
        <time>2016-07-24T09:47:31Z</time>
      </trkpt>
      <trkpt lat="42.38919" lon="0.04925">
        <ele>684.6</ele>
        <time>2016-07-24T09:47:33Z</time>
      </trkpt>
      <trkpt lat="42.38917" lon="0.0493">
        <ele>683.9</ele>
        <time>2016-07-24T09:47:37Z</time>
      </trkpt>
      <trkpt lat="42.38915" lon="0.04937">
        <ele>683</ele>
        <time>2016-07-24T09:47:39Z</time>
      </trkpt>
      <trkpt lat="42.38915" lon="0.04942">
        <ele>682.6</ele>
        <time>2016-07-24T09:47:40Z</time>
      </trkpt>
      <trkpt lat="42.38916" lon="0.04946">
        <ele>682.2</ele>
        <time>2016-07-24T09:47:41Z</time>
      </trkpt>
      <trkpt lat="42.38916" lon="0.0495">
        <ele>681.7</ele>
        <time>2016-07-24T09:47:43Z</time>
      </trkpt>
      <trkpt lat="42.38914" lon="0.04956">
        <ele>680.9</ele>
        <time>2016-07-24T09:47:46Z</time>
      </trkpt>
      <trkpt lat="42.38913" lon="0.0496">
        <ele>680.5</ele>
        <time>2016-07-24T09:47:47Z</time>
      </trkpt>
      <trkpt lat="42.38911" lon="0.04963">
        <ele>680.2</ele>
        <time>2016-07-24T09:47:48Z</time>
      </trkpt>
      <trkpt lat="42.38909" lon="0.04966">
        <ele>679.9</ele>
        <time>2016-07-24T09:47:49Z</time>
      </trkpt>
      <trkpt lat="42.38906" lon="0.04968">
        <ele>679.5</ele>
        <time>2016-07-24T09:47:50Z</time>
      </trkpt>
      <trkpt lat="42.38903" lon="0.04972">
        <ele>679.1</ele>
        <time>2016-07-24T09:47:51Z</time>
      </trkpt>
      <trkpt lat="42.38901" lon="0.04975">
        <ele>678.7</ele>
        <time>2016-07-24T09:47:52Z</time>
      </trkpt>
      <trkpt lat="42.389" lon="0.04978">
        <ele>678.4</ele>
        <time>2016-07-24T09:47:53Z</time>
      </trkpt>
      <trkpt lat="42.38898" lon="0.04981">
        <ele>678.1</ele>
        <time>2016-07-24T09:47:54Z</time>
      </trkpt>
      <trkpt lat="42.38897" lon="0.04987">
        <ele>677.6</ele>
        <time>2016-07-24T09:47:57Z</time>
      </trkpt>
      <trkpt lat="42.38894" lon="0.04992">
        <ele>677.1</ele>
        <time>2016-07-24T09:47:59Z</time>
      </trkpt>
      <trkpt lat="42.38891" lon="0.04993">
        <ele>676.7</ele>
        <time>2016-07-24T09:48:00Z</time>
      </trkpt>
      <trkpt lat="42.38888" lon="0.04994">
        <ele>676.2</ele>
        <time>2016-07-24T09:48:01Z</time>
      </trkpt>
      <trkpt lat="42.38884" lon="0.04996">
        <ele>675.7</ele>
        <time>2016-07-24T09:48:02Z</time>
      </trkpt>
      <trkpt lat="42.38881" lon="0.04998">
        <ele>675.3</ele>
        <time>2016-07-24T09:48:03Z</time>
      </trkpt>
      <trkpt lat="42.38879" lon="0.05001">
        <ele>674.9</ele>
        <time>2016-07-24T09:48:04Z</time>
      </trkpt>
      <trkpt lat="42.3888" lon="0.05008">
        <ele>674.5</ele>
        <time>2016-07-24T09:48:06Z</time>
      </trkpt>
      <trkpt lat="42.38881" lon="0.05013">
        <ele>674.4</ele>
        <time>2016-07-24T09:48:07Z</time>
      </trkpt>
      <trkpt lat="42.38882" lon="0.05018">
        <ele>674.3</ele>
        <time>2016-07-24T09:48:08Z</time>
      </trkpt>
      <trkpt lat="42.38883" lon="0.05023">
        <ele>674.2</ele>
        <time>2016-07-24T09:48:09Z</time>
      </trkpt>
      <trkpt lat="42.38885" lon="0.05028">
        <ele>674</ele>
        <time>2016-07-24T09:48:10Z</time>
      </trkpt>
      <trkpt lat="42.38886" lon="0.05034">
        <ele>673.9</ele>
        <time>2016-07-24T09:48:11Z</time>
      </trkpt>
      <trkpt lat="42.38888" lon="0.05041">
        <ele>673.7</ele>
        <time>2016-07-24T09:48:12Z</time>
      </trkpt>
      <trkpt lat="42.38889" lon="0.05047">
        <ele>673.6</ele>
        <time>2016-07-24T09:48:13Z</time>
      </trkpt>
      <trkpt lat="42.3889" lon="0.05054">
        <ele>673.5</ele>
        <time>2016-07-24T09:48:14Z</time>
      </trkpt>
      <trkpt lat="42.38892" lon="0.0506">
        <ele>673.4</ele>
        <time>2016-07-24T09:48:15Z</time>
      </trkpt>
      <trkpt lat="42.38894" lon="0.05066">
        <ele>673.4</ele>
        <time>2016-07-24T09:48:16Z</time>
      </trkpt>
      <trkpt lat="42.38896" lon="0.0507">
        <ele>673.5</ele>
        <time>2016-07-24T09:48:17Z</time>
      </trkpt>
      <trkpt lat="42.38899" lon="0.05075">
        <ele>673.5</ele>
        <time>2016-07-24T09:48:18Z</time>
      </trkpt>
      <trkpt lat="42.38902" lon="0.05081">
        <ele>673.5</ele>
        <time>2016-07-24T09:48:19Z</time>
      </trkpt>
      <trkpt lat="42.38904" lon="0.05086">
        <ele>673.5</ele>
        <time>2016-07-24T09:48:20Z</time>
      </trkpt>
      <trkpt lat="42.38907" lon="0.05091">
        <ele>673.4</ele>
        <time>2016-07-24T09:48:21Z</time>
      </trkpt>
      <trkpt lat="42.38909" lon="0.05096">
        <ele>673.3</ele>
        <time>2016-07-24T09:48:22Z</time>
      </trkpt>
      <trkpt lat="42.38911" lon="0.05099">
        <ele>673.2</ele>
        <time>2016-07-24T09:48:23Z</time>
      </trkpt>
      <trkpt lat="42.38912" lon="0.05103">
        <ele>673.1</ele>
        <time>2016-07-24T09:48:24Z</time>
      </trkpt>
      <trkpt lat="42.38914" lon="0.05107">
        <ele>673.1</ele>
        <time>2016-07-24T09:48:25Z</time>
      </trkpt>
      <trkpt lat="42.38916" lon="0.05111">
        <ele>672.9</ele>
        <time>2016-07-24T09:48:26Z</time>
      </trkpt>
      <trkpt lat="42.38918" lon="0.05115">
        <ele>672.8</ele>
        <time>2016-07-24T09:48:27Z</time>
      </trkpt>
      <trkpt lat="42.38919" lon="0.05118">
        <ele>672.6</ele>
        <time>2016-07-24T09:48:28Z</time>
      </trkpt>
      <trkpt lat="42.3892" lon="0.05122">
        <ele>672.4</ele>
        <time>2016-07-24T09:48:29Z</time>
      </trkpt>
      <trkpt lat="42.38922" lon="0.05126">
        <ele>672.2</ele>
        <time>2016-07-24T09:48:30Z</time>
      </trkpt>
      <trkpt lat="42.38924" lon="0.0513">
        <ele>672.2</ele>
        <time>2016-07-24T09:48:31Z</time>
      </trkpt>
      <trkpt lat="42.38926" lon="0.05134">
        <ele>672.1</ele>
        <time>2016-07-24T09:48:32Z</time>
      </trkpt>
      <trkpt lat="42.38929" lon="0.05139">
        <ele>671.9</ele>
        <time>2016-07-24T09:48:33Z</time>
      </trkpt>
      <trkpt lat="42.38932" lon="0.05144">
        <ele>671.7</ele>
        <time>2016-07-24T09:48:34Z</time>
      </trkpt>
      <trkpt lat="42.38935" lon="0.0515">
        <ele>671.4</ele>
        <time>2016-07-24T09:48:35Z</time>
      </trkpt>
      <trkpt lat="42.38938" lon="0.05155">
        <ele>671</ele>
        <time>2016-07-24T09:48:36Z</time>
      </trkpt>
      <trkpt lat="42.3894" lon="0.05161">
        <ele>670.6</ele>
        <time>2016-07-24T09:48:37Z</time>
      </trkpt>
      <trkpt lat="42.38943" lon="0.05165">
        <ele>670.2</ele>
        <time>2016-07-24T09:48:38Z</time>
      </trkpt>
      <trkpt lat="42.38944" lon="0.0517">
        <ele>669.7</ele>
        <time>2016-07-24T09:48:39Z</time>
      </trkpt>
      <trkpt lat="42.38946" lon="0.05174">
        <ele>669.3</ele>
        <time>2016-07-24T09:48:40Z</time>
      </trkpt>
      <trkpt lat="42.38947" lon="0.05178">
        <ele>669</ele>
        <time>2016-07-24T09:48:41Z</time>
      </trkpt>
      <trkpt lat="42.38949" lon="0.05184">
        <ele>668.4</ele>
        <time>2016-07-24T09:48:43Z</time>
      </trkpt>
      <trkpt lat="42.3895" lon="0.05188">
        <ele>667.8</ele>
        <time>2016-07-24T09:48:45Z</time>
      </trkpt>
      <trkpt lat="42.38952" lon="0.05193">
        <ele>667.2</ele>
        <time>2016-07-24T09:48:47Z</time>
      </trkpt>
      <trkpt lat="42.38954" lon="0.05198">
        <ele>666.6</ele>
        <time>2016-07-24T09:48:48Z</time>
      </trkpt>
      <trkpt lat="42.38956" lon="0.05203">
        <ele>665.9</ele>
        <time>2016-07-24T09:48:49Z</time>
      </trkpt>
      <trkpt lat="42.38957" lon="0.0521">
        <ele>665</ele>
        <time>2016-07-24T09:48:50Z</time>
      </trkpt>
      <trkpt lat="42.38958" lon="0.05217">
        <ele>664.2</ele>
        <time>2016-07-24T09:48:51Z</time>
      </trkpt>
      <trkpt lat="42.38958" lon="0.05224">
        <ele>663.5</ele>
        <time>2016-07-24T09:48:52Z</time>
      </trkpt>
      <trkpt lat="42.38958" lon="0.05231">
        <ele>662.9</ele>
        <time>2016-07-24T09:48:53Z</time>
      </trkpt>
      <trkpt lat="42.38957" lon="0.05237">
        <ele>662.5</ele>
        <time>2016-07-24T09:48:54Z</time>
      </trkpt>
      <trkpt lat="42.38955" lon="0.05244">
        <ele>662.2</ele>
        <time>2016-07-24T09:48:55Z</time>
      </trkpt>
      <trkpt lat="42.38953" lon="0.05251">
        <ele>662</ele>
        <time>2016-07-24T09:48:56Z</time>
      </trkpt>
      <trkpt lat="42.38952" lon="0.05258">
        <ele>661.7</ele>
        <time>2016-07-24T09:48:57Z</time>
      </trkpt>
      <trkpt lat="42.38951" lon="0.05265">
        <ele>661.2</ele>
        <time>2016-07-24T09:48:58Z</time>
      </trkpt>
      <trkpt lat="42.38952" lon="0.05272">
        <ele>660.5</ele>
        <time>2016-07-24T09:48:59Z</time>
      </trkpt>
      <trkpt lat="42.38953" lon="0.05279">
        <ele>659.5</ele>
        <time>2016-07-24T09:49:00Z</time>
      </trkpt>
      <trkpt lat="42.38955" lon="0.05286">
        <ele>658.3</ele>
        <time>2016-07-24T09:49:01Z</time>
      </trkpt>
      <trkpt lat="42.38959" lon="0.05293">
        <ele>657.1</ele>
        <time>2016-07-24T09:49:02Z</time>
      </trkpt>
      <trkpt lat="42.38962" lon="0.053">
        <ele>657.3</ele>
        <time>2016-07-24T09:49:03Z</time>
      </trkpt>
      <trkpt lat="42.38964" lon="0.05307">
        <ele>657.6</ele>
        <time>2016-07-24T09:49:04Z</time>
      </trkpt>
      <trkpt lat="42.38967" lon="0.05313">
        <ele>657.8</ele>
        <time>2016-07-24T09:49:05Z</time>
      </trkpt>
      <trkpt lat="42.38969" lon="0.05319">
        <ele>657.9</ele>
        <time>2016-07-24T09:49:06Z</time>
      </trkpt>
      <trkpt lat="42.3897" lon="0.05325">
        <ele>658</ele>
        <time>2016-07-24T09:49:07Z</time>
      </trkpt>
      <trkpt lat="42.38972" lon="0.05332">
        <ele>658.1</ele>
        <time>2016-07-24T09:49:08Z</time>
      </trkpt>
      <trkpt lat="42.38975" lon="0.05338">
        <ele>658.2</ele>
        <time>2016-07-24T09:49:09Z</time>
      </trkpt>
      <trkpt lat="42.38978" lon="0.05343">
        <ele>658.2</ele>
        <time>2016-07-24T09:49:10Z</time>
      </trkpt>
      <trkpt lat="42.38981" lon="0.05349">
        <ele>658.1</ele>
        <time>2016-07-24T09:49:11Z</time>
      </trkpt>
      <trkpt lat="42.38984" lon="0.05355">
        <ele>658</ele>
        <time>2016-07-24T09:49:12Z</time>
      </trkpt>
      <trkpt lat="42.38987" lon="0.05361">
        <ele>657.9</ele>
        <time>2016-07-24T09:49:13Z</time>
      </trkpt>
      <trkpt lat="42.3899" lon="0.05367">
        <ele>657.7</ele>
        <time>2016-07-24T09:49:14Z</time>
      </trkpt>
      <trkpt lat="42.38994" lon="0.05374">
        <ele>657.4</ele>
        <time>2016-07-24T09:49:15Z</time>
      </trkpt>
      <trkpt lat="42.38998" lon="0.0538">
        <ele>657.4</ele>
        <time>2016-07-24T09:49:16Z</time>
      </trkpt>
      <trkpt lat="42.39003" lon="0.05385">
        <ele>657.3</ele>
        <time>2016-07-24T09:49:17Z</time>
      </trkpt>
      <trkpt lat="42.39008" lon="0.0539">
        <ele>657.1</ele>
        <time>2016-07-24T09:49:18Z</time>
      </trkpt>
      <trkpt lat="42.39015" lon="0.05392">
        <ele>656.4</ele>
        <time>2016-07-24T09:49:19Z</time>
      </trkpt>
      <trkpt lat="42.3902" lon="0.05396">
        <ele>655.9</ele>
        <time>2016-07-24T09:49:20Z</time>
      </trkpt>
      <trkpt lat="42.39024" lon="0.05401">
        <ele>655.4</ele>
        <time>2016-07-24T09:49:21Z</time>
      </trkpt>
      <trkpt lat="42.39028" lon="0.05406">
        <ele>654.9</ele>
        <time>2016-07-24T09:49:22Z</time>
      </trkpt>
      <trkpt lat="42.39032" lon="0.0541">
        <ele>654.2</ele>
        <time>2016-07-24T09:49:23Z</time>
      </trkpt>
      <trkpt lat="42.39037" lon="0.05413">
        <ele>653.3</ele>
        <time>2016-07-24T09:49:24Z</time>
      </trkpt>
      <trkpt lat="42.39042" lon="0.05418">
        <ele>652.5</ele>
        <time>2016-07-24T09:49:25Z</time>
      </trkpt>
      <trkpt lat="42.39045" lon="0.05422">
        <ele>652.5</ele>
        <time>2016-07-24T09:49:26Z</time>
      </trkpt>
      <trkpt lat="42.39047" lon="0.05426">
        <ele>652.5</ele>
        <time>2016-07-24T09:49:27Z</time>
      </trkpt>
      <trkpt lat="42.39049" lon="0.0543">
        <ele>652.4</ele>
        <time>2016-07-24T09:49:28Z</time>
      </trkpt>
      <trkpt lat="42.39052" lon="0.05435">
        <ele>652.3</ele>
        <time>2016-07-24T09:49:30Z</time>
      </trkpt>
      <trkpt lat="42.39054" lon="0.05437">
        <ele>652.3</ele>
        <time>2016-07-24T09:49:32Z</time>
      </trkpt>
      <trkpt lat="42.39057" lon="0.0544">
        <ele>652.2</ele>
        <time>2016-07-24T09:49:34Z</time>
      </trkpt>
      <trkpt lat="42.39058" lon="0.05444">
        <ele>652.1</ele>
        <time>2016-07-24T09:49:49Z</time>
      </trkpt>
      <trkpt lat="42.39058" lon="0.05447">
        <ele>651.9</ele>
        <time>2016-07-24T09:49:57Z</time>
      </trkpt>
      <trkpt lat="42.39061" lon="0.05448">
        <ele>651.9</ele>
        <time>2016-07-24T09:50:19Z</time>
      </trkpt>
      <trkpt lat="42.39058" lon="0.05449">
        <ele>651.8</ele>
        <time>2016-07-24T09:51:11Z</time>
      </trkpt>
      <trkpt lat="42.39058" lon="0.05453">
        <ele>651.5</ele>
        <time>2016-07-24T09:52:24Z</time>
      </trkpt>
      <trkpt lat="42.39058" lon="0.05457">
        <ele>651.3</ele>
        <time>2016-07-24T09:52:26Z</time>
      </trkpt>
      <trkpt lat="42.39056" lon="0.05464">
        <ele>651.5</ele>
        <time>2016-07-24T09:52:28Z</time>
      </trkpt>
      <trkpt lat="42.39055" lon="0.05468">
        <ele>651.7</ele>
        <time>2016-07-24T09:52:29Z</time>
      </trkpt>
      <trkpt lat="42.39054" lon="0.05471">
        <ele>651.9</ele>
        <time>2016-07-24T09:52:30Z</time>
      </trkpt>
      <trkpt lat="42.39053" lon="0.05478">
        <ele>652.2</ele>
        <time>2016-07-24T09:52:32Z</time>
      </trkpt>
      <trkpt lat="42.39051" lon="0.05483">
        <ele>652.5</ele>
        <time>2016-07-24T09:52:34Z</time>
      </trkpt>
      <trkpt lat="42.39049" lon="0.05487">
        <ele>652.6</ele>
        <time>2016-07-24T09:52:35Z</time>
      </trkpt>
      <trkpt lat="42.39047" lon="0.0549">
        <ele>652.7</ele>
        <time>2016-07-24T09:52:36Z</time>
      </trkpt>
      <trkpt lat="42.39046" lon="0.05493">
        <ele>652.8</ele>
        <time>2016-07-24T09:52:37Z</time>
      </trkpt>
      <trkpt lat="42.39045" lon="0.05497">
        <ele>653</ele>
        <time>2016-07-24T09:52:38Z</time>
      </trkpt>
      <trkpt lat="42.39043" lon="0.05501">
        <ele>653.1</ele>
        <time>2016-07-24T09:52:39Z</time>
      </trkpt>
      <trkpt lat="42.39042" lon="0.05505">
        <ele>653.3</ele>
        <time>2016-07-24T09:52:40Z</time>
      </trkpt>
      <trkpt lat="42.39042" lon="0.05509">
        <ele>653.5</ele>
        <time>2016-07-24T09:52:41Z</time>
      </trkpt>
      <trkpt lat="42.3904" lon="0.05514">
        <ele>654.1</ele>
        <time>2016-07-24T09:52:42Z</time>
      </trkpt>
      <trkpt lat="42.39038" lon="0.05518">
        <ele>654.9</ele>
        <time>2016-07-24T09:52:43Z</time>
      </trkpt>
      <trkpt lat="42.39036" lon="0.05522">
        <ele>655.8</ele>
        <time>2016-07-24T09:52:44Z</time>
      </trkpt>
      <trkpt lat="42.39035" lon="0.05527">
        <ele>656.6</ele>
        <time>2016-07-24T09:52:45Z</time>
      </trkpt>
      <trkpt lat="42.39034" lon="0.05533">
        <ele>657.2</ele>
        <time>2016-07-24T09:52:46Z</time>
      </trkpt>
      <trkpt lat="42.39034" lon="0.05538">
        <ele>657.3</ele>
        <time>2016-07-24T09:52:47Z</time>
      </trkpt>
      <trkpt lat="42.39036" lon="0.05544">
        <ele>656.9</ele>
        <time>2016-07-24T09:52:48Z</time>
      </trkpt>
      <trkpt lat="42.39039" lon="0.05549">
        <ele>656</ele>
        <time>2016-07-24T09:52:49Z</time>
      </trkpt>
      <trkpt lat="42.39042" lon="0.05554">
        <ele>655.3</ele>
        <time>2016-07-24T09:52:50Z</time>
      </trkpt>
      <trkpt lat="42.39044" lon="0.0556">
        <ele>655.7</ele>
        <time>2016-07-24T09:52:51Z</time>
      </trkpt>
      <trkpt lat="42.39045" lon="0.05566">
        <ele>655.9</ele>
        <time>2016-07-24T09:52:52Z</time>
      </trkpt>
      <trkpt lat="42.39046" lon="0.05571">
        <ele>656.1</ele>
        <time>2016-07-24T09:52:53Z</time>
      </trkpt>
      <trkpt lat="42.39046" lon="0.05577">
        <ele>656.3</ele>
        <time>2016-07-24T09:52:54Z</time>
      </trkpt>
      <trkpt lat="42.39046" lon="0.05582">
        <ele>656.4</ele>
        <time>2016-07-24T09:52:55Z</time>
      </trkpt>
      <trkpt lat="42.39045" lon="0.05587">
        <ele>656.4</ele>
        <time>2016-07-24T09:52:56Z</time>
      </trkpt>
      <trkpt lat="42.39043" lon="0.05592">
        <ele>656.4</ele>
        <time>2016-07-24T09:52:57Z</time>
      </trkpt>
      <trkpt lat="42.39042" lon="0.05596">
        <ele>656.3</ele>
        <time>2016-07-24T09:52:58Z</time>
      </trkpt>
      <trkpt lat="42.39041" lon="0.05601">
        <ele>656.8</ele>
        <time>2016-07-24T09:52:59Z</time>
      </trkpt>
      <trkpt lat="42.39039" lon="0.05607">
        <ele>657.3</ele>
        <time>2016-07-24T09:53:00Z</time>
      </trkpt>
      <trkpt lat="42.39038" lon="0.05613">
        <ele>657.9</ele>
        <time>2016-07-24T09:53:01Z</time>
      </trkpt>
      <trkpt lat="42.39036" lon="0.05618">
        <ele>658.5</ele>
        <time>2016-07-24T09:53:02Z</time>
      </trkpt>
      <trkpt lat="42.39034" lon="0.05623">
        <ele>659.4</ele>
        <time>2016-07-24T09:53:03Z</time>
      </trkpt>
      <trkpt lat="42.39031" lon="0.05627">
        <ele>660.1</ele>
        <time>2016-07-24T09:53:04Z</time>
      </trkpt>
      <trkpt lat="42.39029" lon="0.05631">
        <ele>660.6</ele>
        <time>2016-07-24T09:53:05Z</time>
      </trkpt>
      <trkpt lat="42.39026" lon="0.05634">
        <ele>661.1</ele>
        <time>2016-07-24T09:53:07Z</time>
      </trkpt>
      <trkpt lat="42.39024" lon="0.05637">
        <ele>661.6</ele>
        <time>2016-07-24T09:53:09Z</time>
      </trkpt>
      <trkpt lat="42.3902" lon="0.05642">
        <ele>662</ele>
        <time>2016-07-24T09:53:11Z</time>
      </trkpt>
      <trkpt lat="42.39018" lon="0.05647">
        <ele>661.9</ele>
        <time>2016-07-24T09:53:13Z</time>
      </trkpt>
      <trkpt lat="42.39017" lon="0.05652">
        <ele>661.5</ele>
        <time>2016-07-24T09:53:15Z</time>
      </trkpt>
      <trkpt lat="42.39015" lon="0.05656">
        <ele>661.4</ele>
        <time>2016-07-24T09:53:18Z</time>
      </trkpt>
      <trkpt lat="42.39013" lon="0.05658">
        <ele>661.7</ele>
        <time>2016-07-24T09:53:20Z</time>
      </trkpt>
      <trkpt lat="42.39009" lon="0.0566">
        <ele>662</ele>
        <time>2016-07-24T09:53:22Z</time>
      </trkpt>
      <trkpt lat="42.39006" lon="0.05663">
        <ele>662.1</ele>
        <time>2016-07-24T09:53:25Z</time>
      </trkpt>
      <trkpt lat="42.39004" lon="0.05667">
        <ele>661.9</ele>
        <time>2016-07-24T09:53:27Z</time>
      </trkpt>
      <trkpt lat="42.39" lon="0.0567">
        <ele>661.8</ele>
        <time>2016-07-24T09:53:29Z</time>
      </trkpt>
      <trkpt lat="42.38997" lon="0.05675">
        <ele>661.5</ele>
        <time>2016-07-24T09:53:31Z</time>
      </trkpt>
      <trkpt lat="42.38995" lon="0.05677">
        <ele>661.3</ele>
        <time>2016-07-24T09:53:32Z</time>
      </trkpt>
      <trkpt lat="42.38991" lon="0.0568">
        <ele>661.2</ele>
        <time>2016-07-24T09:53:34Z</time>
      </trkpt>
      <trkpt lat="42.38988" lon="0.0568">
        <ele>661.3</ele>
        <time>2016-07-24T09:53:36Z</time>
      </trkpt>
      <trkpt lat="42.38985" lon="0.05681">
        <ele>661.4</ele>
        <time>2016-07-24T09:53:38Z</time>
      </trkpt>
      <trkpt lat="42.38982" lon="0.05683">
        <ele>661.3</ele>
        <time>2016-07-24T09:53:40Z</time>
      </trkpt>
      <trkpt lat="42.38979" lon="0.05687">
        <ele>660.6</ele>
        <time>2016-07-24T09:53:42Z</time>
      </trkpt>
      <trkpt lat="42.38976" lon="0.05691">
        <ele>659.7</ele>
        <time>2016-07-24T09:53:44Z</time>
      </trkpt>
      <trkpt lat="42.38973" lon="0.05694">
        <ele>659.2</ele>
        <time>2016-07-24T09:53:46Z</time>
      </trkpt>
      <trkpt lat="42.38972" lon="0.05698">
        <ele>658.1</ele>
        <time>2016-07-24T09:53:49Z</time>
      </trkpt>
      <trkpt lat="42.38974" lon="0.05701">
        <ele>657</ele>
        <time>2016-07-24T09:53:51Z</time>
      </trkpt>
      <trkpt lat="42.38976" lon="0.05704">
        <ele>656.2</ele>
        <time>2016-07-24T09:53:53Z</time>
      </trkpt>
      <trkpt lat="42.38979" lon="0.05707">
        <ele>655.4</ele>
        <time>2016-07-24T09:53:55Z</time>
      </trkpt>
      <trkpt lat="42.38983" lon="0.0571">
        <ele>654.8</ele>
        <time>2016-07-24T09:53:58Z</time>
      </trkpt>
      <trkpt lat="42.38986" lon="0.05712">
        <ele>654.5</ele>
        <time>2016-07-24T09:54:00Z</time>
      </trkpt>
      <trkpt lat="42.38988" lon="0.05714">
        <ele>654.3</ele>
        <time>2016-07-24T09:54:02Z</time>
      </trkpt>
      <trkpt lat="42.38991" lon="0.05714">
        <ele>654.3</ele>
        <time>2016-07-24T09:54:04Z</time>
      </trkpt>
      <trkpt lat="42.38995" lon="0.05715">
        <ele>654.2</ele>
        <time>2016-07-24T09:54:07Z</time>
      </trkpt>
      <trkpt lat="42.38998" lon="0.05713">
        <ele>654.5</ele>
        <time>2016-07-24T09:54:10Z</time>
      </trkpt>
      <trkpt lat="42.39" lon="0.05709">
        <ele>655</ele>
        <time>2016-07-24T09:54:13Z</time>
      </trkpt>
      <trkpt lat="42.39001" lon="0.05704">
        <ele>655.7</ele>
        <time>2016-07-24T09:54:16Z</time>
      </trkpt>
      <trkpt lat="42.39001" lon="0.05699">
        <ele>656.6</ele>
        <time>2016-07-24T09:54:19Z</time>
      </trkpt>
      <trkpt lat="42.39001" lon="0.05696">
        <ele>657.2</ele>
        <time>2016-07-24T09:54:21Z</time>
      </trkpt>
      <trkpt lat="42.39003" lon="0.05692">
        <ele>657.7</ele>
        <time>2016-07-24T09:54:29Z</time>
      </trkpt>
      <trkpt lat="42.39006" lon="0.05694">
        <ele>657.3</ele>
        <time>2016-07-24T09:54:43Z</time>
      </trkpt>
      <trkpt lat="42.39008" lon="0.05697">
        <ele>656.7</ele>
        <time>2016-07-24T09:54:49Z</time>
      </trkpt>
      <trkpt lat="42.39009" lon="0.057">
        <ele>656.2</ele>
        <time>2016-07-24T09:54:54Z</time>
      </trkpt>
      <trkpt lat="42.39012" lon="0.05701">
        <ele>656</ele>
        <time>2016-07-24T09:55:00Z</time>
      </trkpt>
      <trkpt lat="42.39013" lon="0.05698">
        <ele>656.4</ele>
        <time>2016-07-24T09:55:04Z</time>
      </trkpt>
      <trkpt lat="42.39015" lon="0.05694">
        <ele>656.8</ele>
        <time>2016-07-24T09:55:08Z</time>
      </trkpt>
      <trkpt lat="42.39017" lon="0.05692">
        <ele>656.9</ele>
        <time>2016-07-24T09:55:17Z</time>
      </trkpt>
      <trkpt lat="42.3902" lon="0.05693">
        <ele>656.6</ele>
        <time>2016-07-24T09:55:22Z</time>
      </trkpt>
      <trkpt lat="42.39021" lon="0.05697">
        <ele>656.2</ele>
        <time>2016-07-24T09:55:26Z</time>
      </trkpt>
      <trkpt lat="42.39021" lon="0.05701">
        <ele>655.7</ele>
        <time>2016-07-24T09:55:30Z</time>
      </trkpt>
      <trkpt lat="42.39021" lon="0.05705">
        <ele>655.3</ele>
        <time>2016-07-24T09:55:34Z</time>
      </trkpt>
      <trkpt lat="42.39022" lon="0.05709">
        <ele>655</ele>
        <time>2016-07-24T09:55:38Z</time>
      </trkpt>
      <trkpt lat="42.39024" lon="0.05712">
        <ele>654.8</ele>
        <time>2016-07-24T09:55:43Z</time>
      </trkpt>
      <trkpt lat="42.39027" lon="0.05714">
        <ele>654.7</ele>
        <time>2016-07-24T09:55:48Z</time>
      </trkpt>
      <trkpt lat="42.3903" lon="0.05715">
        <ele>654.7</ele>
        <time>2016-07-24T09:55:53Z</time>
      </trkpt>
      <trkpt lat="42.39032" lon="0.05712">
        <ele>654.9</ele>
        <time>2016-07-24T09:55:57Z</time>
      </trkpt>
      <trkpt lat="42.39032" lon="0.05708">
        <ele>655</ele>
        <time>2016-07-24T09:56:01Z</time>
      </trkpt>
      <trkpt lat="42.39032" lon="0.05704">
        <ele>655.3</ele>
        <time>2016-07-24T09:56:12Z</time>
      </trkpt>
      <trkpt lat="42.39035" lon="0.05703">
        <ele>655.3</ele>
        <time>2016-07-24T09:56:19Z</time>
      </trkpt>
      <trkpt lat="42.39038" lon="0.05702">
        <ele>655.2</ele>
        <time>2016-07-24T09:56:24Z</time>
      </trkpt>
      <trkpt lat="42.39039" lon="0.05705">
        <ele>655.1</ele>
        <time>2016-07-24T09:56:30Z</time>
      </trkpt>
      <trkpt lat="42.39042" lon="0.05706">
        <ele>655.2</ele>
        <time>2016-07-24T09:56:38Z</time>
      </trkpt>
      <trkpt lat="42.39046" lon="0.05706">
        <ele>656</ele>
        <time>2016-07-24T09:56:45Z</time>
      </trkpt>
      <trkpt lat="42.39048" lon="0.05705">
        <ele>656.7</ele>
        <time>2016-07-24T09:56:52Z</time>
      </trkpt>
      <trkpt lat="42.39051" lon="0.05704">
        <ele>657.4</ele>
        <time>2016-07-24T09:56:59Z</time>
      </trkpt>
      <trkpt lat="42.39054" lon="0.05703">
        <ele>658.3</ele>
        <time>2016-07-24T09:57:03Z</time>
      </trkpt>
      <trkpt lat="42.39058" lon="0.05702">
        <ele>659</ele>
        <time>2016-07-24T09:57:07Z</time>
      </trkpt>
      <trkpt lat="42.3906" lon="0.057">
        <ele>659.6</ele>
        <time>2016-07-24T09:57:11Z</time>
      </trkpt>
      <trkpt lat="42.39062" lon="0.05697">
        <ele>660.1</ele>
        <time>2016-07-24T09:57:16Z</time>
      </trkpt>
      <trkpt lat="42.39063" lon="0.05693">
        <ele>660.3</ele>
        <time>2016-07-24T09:57:21Z</time>
      </trkpt>
      <trkpt lat="42.39064" lon="0.0569">
        <ele>660.6</ele>
        <time>2016-07-24T09:57:26Z</time>
      </trkpt>
      <trkpt lat="42.39065" lon="0.05686">
        <ele>660.9</ele>
        <time>2016-07-24T09:57:33Z</time>
      </trkpt>
      <trkpt lat="42.39067" lon="0.05683">
        <ele>661.3</ele>
        <time>2016-07-24T09:57:38Z</time>
      </trkpt>
      <trkpt lat="42.3907" lon="0.0568">
        <ele>661.8</ele>
        <time>2016-07-24T09:57:44Z</time>
      </trkpt>
      <trkpt lat="42.39072" lon="0.05678">
        <ele>662.3</ele>
        <time>2016-07-24T09:57:54Z</time>
      </trkpt>
      <trkpt lat="42.39075" lon="0.05677">
        <ele>662.9</ele>
        <time>2016-07-24T09:57:59Z</time>
      </trkpt>
      <trkpt lat="42.39078" lon="0.05677">
        <ele>663.5</ele>
        <time>2016-07-24T09:58:15Z</time>
      </trkpt>
      <trkpt lat="42.39081" lon="0.05677">
        <ele>664.2</ele>
        <time>2016-07-24T09:58:23Z</time>
      </trkpt>
      <trkpt lat="42.39083" lon="0.05674">
        <ele>664.7</ele>
        <time>2016-07-24T09:58:29Z</time>
      </trkpt>
      <trkpt lat="42.39086" lon="0.05671">
        <ele>665.1</ele>
        <time>2016-07-24T09:58:34Z</time>
      </trkpt>
      <trkpt lat="42.39088" lon="0.0567">
        <ele>665.6</ele>
        <time>2016-07-24T09:58:38Z</time>
      </trkpt>
      <trkpt lat="42.39091" lon="0.05668">
        <ele>666.1</ele>
        <time>2016-07-24T09:58:43Z</time>
      </trkpt>
      <trkpt lat="42.39094" lon="0.05667">
        <ele>666.7</ele>
        <time>2016-07-24T09:58:48Z</time>
      </trkpt>
      <trkpt lat="42.39097" lon="0.05664">
        <ele>667.2</ele>
        <time>2016-07-24T09:58:52Z</time>
      </trkpt>
      <trkpt lat="42.39099" lon="0.05662">
        <ele>667.5</ele>
        <time>2016-07-24T09:58:57Z</time>
      </trkpt>
      <trkpt lat="42.39101" lon="0.05659">
        <ele>667.7</ele>
        <time>2016-07-24T09:59:02Z</time>
      </trkpt>
      <trkpt lat="42.39103" lon="0.05657">
        <ele>668.1</ele>
        <time>2016-07-24T09:59:07Z</time>
      </trkpt>
      <trkpt lat="42.39106" lon="0.05654">
        <ele>668.5</ele>
        <time>2016-07-24T09:59:14Z</time>
      </trkpt>
      <trkpt lat="42.39108" lon="0.05651">
        <ele>668.7</ele>
        <time>2016-07-24T09:59:23Z</time>
      </trkpt>
      <trkpt lat="42.3911" lon="0.05648">
        <ele>668.9</ele>
        <time>2016-07-24T09:59:28Z</time>
      </trkpt>
      <trkpt lat="42.39113" lon="0.05648">
        <ele>669.4</ele>
        <time>2016-07-24T09:59:33Z</time>
      </trkpt>
      <trkpt lat="42.39115" lon="0.05649">
        <ele>670</ele>
        <time>2016-07-24T09:59:39Z</time>
      </trkpt>
      <trkpt lat="42.39118" lon="0.05651">
        <ele>670.6</ele>
        <time>2016-07-24T09:59:44Z</time>
      </trkpt>
      <trkpt lat="42.39121" lon="0.05653">
        <ele>671.3</ele>
        <time>2016-07-24T09:59:58Z</time>
      </trkpt>
      <trkpt lat="42.39125" lon="0.05654">
        <ele>672</ele>
        <time>2016-07-24T10:00:00Z</time>
      </trkpt>
      <trkpt lat="42.39128" lon="0.05654">
        <ele>673.1</ele>
        <time>2016-07-24T10:00:02Z</time>
      </trkpt>
      <trkpt lat="42.39131" lon="0.05654">
        <ele>674.4</ele>
        <time>2016-07-24T10:00:04Z</time>
      </trkpt>
      <trkpt lat="42.39135" lon="0.05655">
        <ele>675.7</ele>
        <time>2016-07-24T10:00:06Z</time>
      </trkpt>
      <trkpt lat="42.39139" lon="0.05656">
        <ele>677.1</ele>
        <time>2016-07-24T10:00:08Z</time>
      </trkpt>
      <trkpt lat="42.39142" lon="0.05656">
        <ele>678.4</ele>
        <time>2016-07-24T10:00:10Z</time>
      </trkpt>
      <trkpt lat="42.39146" lon="0.05656">
        <ele>679.6</ele>
        <time>2016-07-24T10:00:12Z</time>
      </trkpt>
      <trkpt lat="42.39149" lon="0.05656">
        <ele>680.7</ele>
        <time>2016-07-24T10:00:14Z</time>
      </trkpt>
      <trkpt lat="42.39152" lon="0.05656">
        <ele>681.9</ele>
        <time>2016-07-24T10:00:16Z</time>
      </trkpt>
      <trkpt lat="42.39156" lon="0.05655">
        <ele>683.1</ele>
        <time>2016-07-24T10:00:18Z</time>
      </trkpt>
      <trkpt lat="42.39159" lon="0.05655">
        <ele>684.2</ele>
        <time>2016-07-24T10:00:20Z</time>
      </trkpt>
      <trkpt lat="42.39162" lon="0.05654">
        <ele>685.4</ele>
        <time>2016-07-24T10:00:22Z</time>
      </trkpt>
      <trkpt lat="42.39165" lon="0.05655">
        <ele>686.5</ele>
        <time>2016-07-24T10:00:24Z</time>
      </trkpt>
      <trkpt lat="42.39169" lon="0.05655">
        <ele>687.7</ele>
        <time>2016-07-24T10:00:26Z</time>
      </trkpt>
      <trkpt lat="42.39172" lon="0.05655">
        <ele>688.9</ele>
        <time>2016-07-24T10:00:28Z</time>
      </trkpt>
      <trkpt lat="42.39175" lon="0.05656">
        <ele>690</ele>
        <time>2016-07-24T10:00:30Z</time>
      </trkpt>
      <trkpt lat="42.39178" lon="0.05657">
        <ele>691</ele>
        <time>2016-07-24T10:00:32Z</time>
      </trkpt>
      <trkpt lat="42.39181" lon="0.05658">
        <ele>691.9</ele>
        <time>2016-07-24T10:00:34Z</time>
      </trkpt>
      <trkpt lat="42.39184" lon="0.05659">
        <ele>693.2</ele>
        <time>2016-07-24T10:00:37Z</time>
      </trkpt>
      <trkpt lat="42.39188" lon="0.05659">
        <ele>694.4</ele>
        <time>2016-07-24T10:00:40Z</time>
      </trkpt>
      <trkpt lat="42.39191" lon="0.05658">
        <ele>695.6</ele>
        <time>2016-07-24T10:00:43Z</time>
      </trkpt>
      <trkpt lat="42.39195" lon="0.05657">
        <ele>696.9</ele>
        <time>2016-07-24T10:00:46Z</time>
      </trkpt>
      <trkpt lat="42.39199" lon="0.05657">
        <ele>698.4</ele>
        <time>2016-07-24T10:00:49Z</time>
      </trkpt>
      <trkpt lat="42.39203" lon="0.05657">
        <ele>699.8</ele>
        <time>2016-07-24T10:00:52Z</time>
      </trkpt>
      <trkpt lat="42.39207" lon="0.05656">
        <ele>701.2</ele>
        <time>2016-07-24T10:00:55Z</time>
      </trkpt>
      <trkpt lat="42.39209" lon="0.05654">
        <ele>702</ele>
        <time>2016-07-24T10:00:57Z</time>
      </trkpt>
      <trkpt lat="42.39212" lon="0.05652">
        <ele>702.6</ele>
        <time>2016-07-24T10:00:59Z</time>
      </trkpt>
      <trkpt lat="42.39214" lon="0.0565">
        <ele>703.1</ele>
        <time>2016-07-24T10:01:01Z</time>
      </trkpt>
      <trkpt lat="42.39217" lon="0.05647">
        <ele>704</ele>
        <time>2016-07-24T10:01:04Z</time>
      </trkpt>
      <trkpt lat="42.39221" lon="0.05645">
        <ele>704.8</ele>
        <time>2016-07-24T10:01:07Z</time>
      </trkpt>
      <trkpt lat="42.39224" lon="0.05644">
        <ele>705.6</ele>
        <time>2016-07-24T10:01:10Z</time>
      </trkpt>
      <trkpt lat="42.39228" lon="0.05643">
        <ele>706.4</ele>
        <time>2016-07-24T10:01:13Z</time>
      </trkpt>
      <trkpt lat="42.39232" lon="0.05641">
        <ele>707.3</ele>
        <time>2016-07-24T10:01:16Z</time>
      </trkpt>
      <trkpt lat="42.39236" lon="0.0564">
        <ele>708.2</ele>
        <time>2016-07-24T10:01:19Z</time>
      </trkpt>
      <trkpt lat="42.39239" lon="0.05637">
        <ele>709.2</ele>
        <time>2016-07-24T10:01:22Z</time>
      </trkpt>
      <trkpt lat="42.39242" lon="0.05635">
        <ele>710.2</ele>
        <time>2016-07-24T10:01:25Z</time>
      </trkpt>
      <trkpt lat="42.39244" lon="0.05631">
        <ele>711.2</ele>
        <time>2016-07-24T10:01:28Z</time>
      </trkpt>
      <trkpt lat="42.39247" lon="0.05629">
        <ele>712.2</ele>
        <time>2016-07-24T10:01:31Z</time>
      </trkpt>
      <trkpt lat="42.3925" lon="0.05627">
        <ele>713.2</ele>
        <time>2016-07-24T10:01:34Z</time>
      </trkpt>
      <trkpt lat="42.39253" lon="0.05625">
        <ele>714</ele>
        <time>2016-07-24T10:01:37Z</time>
      </trkpt>
      <trkpt lat="42.39256" lon="0.05623">
        <ele>714.4</ele>
        <time>2016-07-24T10:01:40Z</time>
      </trkpt>
      <trkpt lat="42.39259" lon="0.05622">
        <ele>715</ele>
        <time>2016-07-24T10:01:43Z</time>
      </trkpt>
      <trkpt lat="42.39262" lon="0.0562">
        <ele>715.3</ele>
        <time>2016-07-24T10:01:46Z</time>
      </trkpt>
      <trkpt lat="42.39265" lon="0.05618">
        <ele>715.4</ele>
        <time>2016-07-24T10:01:49Z</time>
      </trkpt>
      <trkpt lat="42.39268" lon="0.05616">
        <ele>715.8</ele>
        <time>2016-07-24T10:01:52Z</time>
      </trkpt>
      <trkpt lat="42.39271" lon="0.05613">
        <ele>716.1</ele>
        <time>2016-07-24T10:01:55Z</time>
      </trkpt>
      <trkpt lat="42.39274" lon="0.05611">
        <ele>716.3</ele>
        <time>2016-07-24T10:01:58Z</time>
      </trkpt>
      <trkpt lat="42.39277" lon="0.05608">
        <ele>716.5</ele>
        <time>2016-07-24T10:02:01Z</time>
      </trkpt>
      <trkpt lat="42.3928" lon="0.05605">
        <ele>716.6</ele>
        <time>2016-07-24T10:02:04Z</time>
      </trkpt>
      <trkpt lat="42.39282" lon="0.05603">
        <ele>716.8</ele>
        <time>2016-07-24T10:02:07Z</time>
      </trkpt>
      <trkpt lat="42.39285" lon="0.056">
        <ele>716.9</ele>
        <time>2016-07-24T10:02:10Z</time>
      </trkpt>
      <trkpt lat="42.39288" lon="0.05598">
        <ele>717.2</ele>
        <time>2016-07-24T10:02:13Z</time>
      </trkpt>
      <trkpt lat="42.39291" lon="0.05595">
        <ele>717.4</ele>
        <time>2016-07-24T10:02:16Z</time>
      </trkpt>
      <trkpt lat="42.39294" lon="0.05594">
        <ele>717.6</ele>
        <time>2016-07-24T10:02:19Z</time>
      </trkpt>
      <trkpt lat="42.39297" lon="0.05592">
        <ele>717.6</ele>
        <time>2016-07-24T10:02:22Z</time>
      </trkpt>
      <trkpt lat="42.39301" lon="0.05591">
        <ele>717.7</ele>
        <time>2016-07-24T10:02:25Z</time>
      </trkpt>
      <trkpt lat="42.39304" lon="0.05589">
        <ele>717.8</ele>
        <time>2016-07-24T10:02:28Z</time>
      </trkpt>
      <trkpt lat="42.39307" lon="0.05587">
        <ele>717.9</ele>
        <time>2016-07-24T10:02:31Z</time>
      </trkpt>
      <trkpt lat="42.3931" lon="0.05586">
        <ele>718.1</ele>
        <time>2016-07-24T10:02:34Z</time>
      </trkpt>
      <trkpt lat="42.39314" lon="0.05585">
        <ele>718.4</ele>
        <time>2016-07-24T10:02:37Z</time>
      </trkpt>
      <trkpt lat="42.39317" lon="0.05584">
        <ele>718.6</ele>
        <time>2016-07-24T10:02:40Z</time>
      </trkpt>
      <trkpt lat="42.39321" lon="0.05582">
        <ele>718.9</ele>
        <time>2016-07-24T10:02:43Z</time>
      </trkpt>
      <trkpt lat="42.39325" lon="0.05582">
        <ele>719.4</ele>
        <time>2016-07-24T10:02:46Z</time>
      </trkpt>
      <trkpt lat="42.39329" lon="0.05582">
        <ele>719.9</ele>
        <time>2016-07-24T10:02:49Z</time>
      </trkpt>
      <trkpt lat="42.39333" lon="0.05582">
        <ele>720.3</ele>
        <time>2016-07-24T10:02:52Z</time>
      </trkpt>
      <trkpt lat="42.39335" lon="0.05582">
        <ele>720.6</ele>
        <time>2016-07-24T10:02:54Z</time>
      </trkpt>
      <trkpt lat="42.39339" lon="0.05581">
        <ele>721</ele>
        <time>2016-07-24T10:02:57Z</time>
      </trkpt>
      <trkpt lat="42.39343" lon="0.0558">
        <ele>721.5</ele>
        <time>2016-07-24T10:03:00Z</time>
      </trkpt>
      <trkpt lat="42.39347" lon="0.0558">
        <ele>722</ele>
        <time>2016-07-24T10:03:03Z</time>
      </trkpt>
      <trkpt lat="42.3935" lon="0.0558">
        <ele>722.3</ele>
        <time>2016-07-24T10:03:05Z</time>
      </trkpt>
      <trkpt lat="42.39353" lon="0.05579">
        <ele>722.8</ele>
        <time>2016-07-24T10:03:08Z</time>
      </trkpt>
      <trkpt lat="42.39356" lon="0.05579">
        <ele>723.1</ele>
        <time>2016-07-24T10:03:10Z</time>
      </trkpt>
      <trkpt lat="42.39359" lon="0.05579">
        <ele>723.4</ele>
        <time>2016-07-24T10:03:12Z</time>
      </trkpt>
      <trkpt lat="42.39363" lon="0.05579">
        <ele>723.9</ele>
        <time>2016-07-24T10:03:15Z</time>
      </trkpt>
      <trkpt lat="42.39365" lon="0.05579">
        <ele>724.3</ele>
        <time>2016-07-24T10:03:17Z</time>
      </trkpt>
      <trkpt lat="42.39368" lon="0.05579">
        <ele>724.7</ele>
        <time>2016-07-24T10:03:19Z</time>
      </trkpt>
      <trkpt lat="42.39371" lon="0.05578">
        <ele>725.1</ele>
        <time>2016-07-24T10:03:21Z</time>
      </trkpt>
      <trkpt lat="42.39374" lon="0.05577">
        <ele>725.4</ele>
        <time>2016-07-24T10:03:23Z</time>
      </trkpt>
      <trkpt lat="42.39377" lon="0.05575">
        <ele>725.9</ele>
        <time>2016-07-24T10:03:25Z</time>
      </trkpt>
      <trkpt lat="42.3938" lon="0.05574">
        <ele>726.3</ele>
        <time>2016-07-24T10:03:27Z</time>
      </trkpt>
      <trkpt lat="42.39383" lon="0.05573">
        <ele>726.8</ele>
        <time>2016-07-24T10:03:29Z</time>
      </trkpt>
      <trkpt lat="42.39386" lon="0.05573">
        <ele>727.3</ele>
        <time>2016-07-24T10:03:31Z</time>
      </trkpt>
      <trkpt lat="42.39389" lon="0.05574">
        <ele>727.8</ele>
        <time>2016-07-24T10:03:33Z</time>
      </trkpt>
      <trkpt lat="42.39392" lon="0.05575">
        <ele>728.3</ele>
        <time>2016-07-24T10:03:35Z</time>
      </trkpt>
      <trkpt lat="42.39395" lon="0.05575">
        <ele>728.8</ele>
        <time>2016-07-24T10:03:37Z</time>
      </trkpt>
      <trkpt lat="42.39399" lon="0.05575">
        <ele>729.3</ele>
        <time>2016-07-24T10:03:39Z</time>
      </trkpt>
      <trkpt lat="42.39402" lon="0.05575">
        <ele>729.9</ele>
        <time>2016-07-24T10:03:41Z</time>
      </trkpt>
      <trkpt lat="42.39406" lon="0.05576">
        <ele>730.5</ele>
        <time>2016-07-24T10:03:43Z</time>
      </trkpt>
      <trkpt lat="42.39411" lon="0.05576">
        <ele>731.2</ele>
        <time>2016-07-24T10:03:45Z</time>
      </trkpt>
      <trkpt lat="42.39415" lon="0.05576">
        <ele>731.9</ele>
        <time>2016-07-24T10:03:47Z</time>
      </trkpt>
      <trkpt lat="42.39419" lon="0.05576">
        <ele>732.5</ele>
        <time>2016-07-24T10:03:49Z</time>
      </trkpt>
      <trkpt lat="42.39423" lon="0.05576">
        <ele>733.1</ele>
        <time>2016-07-24T10:03:51Z</time>
      </trkpt>
      <trkpt lat="42.39427" lon="0.05576">
        <ele>733.8</ele>
        <time>2016-07-24T10:03:53Z</time>
      </trkpt>
      <trkpt lat="42.3943" lon="0.05575">
        <ele>734.3</ele>
        <time>2016-07-24T10:03:55Z</time>
      </trkpt>
      <trkpt lat="42.39434" lon="0.05574">
        <ele>735</ele>
        <time>2016-07-24T10:03:57Z</time>
      </trkpt>
      <trkpt lat="42.39438" lon="0.05573">
        <ele>735.7</ele>
        <time>2016-07-24T10:03:59Z</time>
      </trkpt>
      <trkpt lat="42.39442" lon="0.05573">
        <ele>736.3</ele>
        <time>2016-07-24T10:04:01Z</time>
      </trkpt>
      <trkpt lat="42.39446" lon="0.05573">
        <ele>737</ele>
        <time>2016-07-24T10:04:03Z</time>
      </trkpt>
      <trkpt lat="42.3945" lon="0.05573">
        <ele>737.6</ele>
        <time>2016-07-24T10:04:05Z</time>
      </trkpt>
      <trkpt lat="42.39453" lon="0.05573">
        <ele>738.2</ele>
        <time>2016-07-24T10:04:07Z</time>
      </trkpt>
      <trkpt lat="42.39457" lon="0.05572">
        <ele>738.9</ele>
        <time>2016-07-24T10:04:09Z</time>
      </trkpt>
      <trkpt lat="42.3946" lon="0.0557">
        <ele>739.4</ele>
        <time>2016-07-24T10:04:11Z</time>
      </trkpt>
      <trkpt lat="42.39464" lon="0.0557">
        <ele>739.7</ele>
        <time>2016-07-24T10:04:13Z</time>
      </trkpt>
      <trkpt lat="42.39468" lon="0.05569">
        <ele>740</ele>
        <time>2016-07-24T10:04:15Z</time>
      </trkpt>
      <trkpt lat="42.39472" lon="0.0557">
        <ele>740.3</ele>
        <time>2016-07-24T10:04:17Z</time>
      </trkpt>
      <trkpt lat="42.39476" lon="0.05571">
        <ele>740.5</ele>
        <time>2016-07-24T10:04:19Z</time>
      </trkpt>
      <trkpt lat="42.3948" lon="0.05571">
        <ele>740.7</ele>
        <time>2016-07-24T10:04:21Z</time>
      </trkpt>
      <trkpt lat="42.39484" lon="0.05571">
        <ele>741</ele>
        <time>2016-07-24T10:04:23Z</time>
      </trkpt>
      <trkpt lat="42.39488" lon="0.05571">
        <ele>741.3</ele>
        <time>2016-07-24T10:04:25Z</time>
      </trkpt>
      <trkpt lat="42.39491" lon="0.05571">
        <ele>741.6</ele>
        <time>2016-07-24T10:04:27Z</time>
      </trkpt>
      <trkpt lat="42.39495" lon="0.0557">
        <ele>741.9</ele>
        <time>2016-07-24T10:04:29Z</time>
      </trkpt>
      <trkpt lat="42.39498" lon="0.05571">
        <ele>742.1</ele>
        <time>2016-07-24T10:04:31Z</time>
      </trkpt>
      <trkpt lat="42.39502" lon="0.0557">
        <ele>742.4</ele>
        <time>2016-07-24T10:04:33Z</time>
      </trkpt>
      <trkpt lat="42.39505" lon="0.0557">
        <ele>742.7</ele>
        <time>2016-07-24T10:04:35Z</time>
      </trkpt>
      <trkpt lat="42.39509" lon="0.0557">
        <ele>743</ele>
        <time>2016-07-24T10:04:37Z</time>
      </trkpt>
      <trkpt lat="42.39513" lon="0.0557">
        <ele>743.3</ele>
        <time>2016-07-24T10:04:39Z</time>
      </trkpt>
      <trkpt lat="42.39517" lon="0.05569">
        <ele>743.6</ele>
        <time>2016-07-24T10:04:41Z</time>
      </trkpt>
      <trkpt lat="42.39521" lon="0.05569">
        <ele>743.9</ele>
        <time>2016-07-24T10:04:43Z</time>
      </trkpt>
      <trkpt lat="42.39525" lon="0.0557">
        <ele>744.1</ele>
        <time>2016-07-24T10:04:45Z</time>
      </trkpt>
      <trkpt lat="42.3953" lon="0.0557">
        <ele>744.4</ele>
        <time>2016-07-24T10:04:47Z</time>
      </trkpt>
      <trkpt lat="42.39533" lon="0.0557">
        <ele>744.7</ele>
        <time>2016-07-24T10:04:49Z</time>
      </trkpt>
      <trkpt lat="42.39537" lon="0.05569">
        <ele>745</ele>
        <time>2016-07-24T10:04:51Z</time>
      </trkpt>
      <trkpt lat="42.39541" lon="0.05569">
        <ele>745.3</ele>
        <time>2016-07-24T10:04:53Z</time>
      </trkpt>
      <trkpt lat="42.39544" lon="0.05568">
        <ele>745.5</ele>
        <time>2016-07-24T10:04:55Z</time>
      </trkpt>
      <trkpt lat="42.39548" lon="0.05568">
        <ele>745.5</ele>
        <time>2016-07-24T10:04:57Z</time>
      </trkpt>
      <trkpt lat="42.39551" lon="0.05568">
        <ele>745.6</ele>
        <time>2016-07-24T10:04:59Z</time>
      </trkpt>
      <trkpt lat="42.39554" lon="0.05568">
        <ele>745.6</ele>
        <time>2016-07-24T10:05:01Z</time>
      </trkpt>
      <trkpt lat="42.39558" lon="0.05568">
        <ele>745.6</ele>
        <time>2016-07-24T10:05:03Z</time>
      </trkpt>
      <trkpt lat="42.39562" lon="0.05568">
        <ele>745.7</ele>
        <time>2016-07-24T10:05:05Z</time>
      </trkpt>
      <trkpt lat="42.39565" lon="0.05567">
        <ele>745.8</ele>
        <time>2016-07-24T10:05:07Z</time>
      </trkpt>
      <trkpt lat="42.3957" lon="0.05567">
        <ele>745.9</ele>
        <time>2016-07-24T10:05:09Z</time>
      </trkpt>
      <trkpt lat="42.39574" lon="0.05567">
        <ele>745.9</ele>
        <time>2016-07-24T10:05:11Z</time>
      </trkpt>
      <trkpt lat="42.39578" lon="0.05566">
        <ele>746</ele>
        <time>2016-07-24T10:05:13Z</time>
      </trkpt>
      <trkpt lat="42.39582" lon="0.05566">
        <ele>746</ele>
        <time>2016-07-24T10:05:15Z</time>
      </trkpt>
      <trkpt lat="42.39586" lon="0.05565">
        <ele>746.1</ele>
        <time>2016-07-24T10:05:17Z</time>
      </trkpt>
      <trkpt lat="42.39589" lon="0.05565">
        <ele>746.2</ele>
        <time>2016-07-24T10:05:19Z</time>
      </trkpt>
      <trkpt lat="42.39592" lon="0.05564">
        <ele>746.2</ele>
        <time>2016-07-24T10:05:21Z</time>
      </trkpt>
      <trkpt lat="42.39596" lon="0.05564">
        <ele>746.3</ele>
        <time>2016-07-24T10:05:23Z</time>
      </trkpt>
      <trkpt lat="42.396" lon="0.05564">
        <ele>746.3</ele>
        <time>2016-07-24T10:05:25Z</time>
      </trkpt>
      <trkpt lat="42.39603" lon="0.05564">
        <ele>746.3</ele>
        <time>2016-07-24T10:05:27Z</time>
      </trkpt>
      <trkpt lat="42.39608" lon="0.05564">
        <ele>746.3</ele>
        <time>2016-07-24T10:05:29Z</time>
      </trkpt>
      <trkpt lat="42.39612" lon="0.05564">
        <ele>746.4</ele>
        <time>2016-07-24T10:05:31Z</time>
      </trkpt>
      <trkpt lat="42.39616" lon="0.05563">
        <ele>746.4</ele>
        <time>2016-07-24T10:05:33Z</time>
      </trkpt>
      <trkpt lat="42.3962" lon="0.05563">
        <ele>746.5</ele>
        <time>2016-07-24T10:05:35Z</time>
      </trkpt>
      <trkpt lat="42.39624" lon="0.05563">
        <ele>746.5</ele>
        <time>2016-07-24T10:05:37Z</time>
      </trkpt>
      <trkpt lat="42.39628" lon="0.05562">
        <ele>746.4</ele>
        <time>2016-07-24T10:05:39Z</time>
      </trkpt>
      <trkpt lat="42.39632" lon="0.05561">
        <ele>746.3</ele>
        <time>2016-07-24T10:05:41Z</time>
      </trkpt>
      <trkpt lat="42.39636" lon="0.0556">
        <ele>746.3</ele>
        <time>2016-07-24T10:05:43Z</time>
      </trkpt>
      <trkpt lat="42.3964" lon="0.05558">
        <ele>746.2</ele>
        <time>2016-07-24T10:05:45Z</time>
      </trkpt>
      <trkpt lat="42.39644" lon="0.05556">
        <ele>746.1</ele>
        <time>2016-07-24T10:05:47Z</time>
      </trkpt>
      <trkpt lat="42.39648" lon="0.05554">
        <ele>746</ele>
        <time>2016-07-24T10:05:49Z</time>
      </trkpt>
      <trkpt lat="42.39652" lon="0.05552">
        <ele>745.9</ele>
        <time>2016-07-24T10:05:51Z</time>
      </trkpt>
      <trkpt lat="42.39655" lon="0.0555">
        <ele>745.8</ele>
        <time>2016-07-24T10:05:53Z</time>
      </trkpt>
      <trkpt lat="42.39659" lon="0.05548">
        <ele>745.7</ele>
        <time>2016-07-24T10:05:55Z</time>
      </trkpt>
      <trkpt lat="42.39663" lon="0.05547">
        <ele>745.6</ele>
        <time>2016-07-24T10:05:57Z</time>
      </trkpt>
      <trkpt lat="42.39667" lon="0.05546">
        <ele>745.5</ele>
        <time>2016-07-24T10:05:59Z</time>
      </trkpt>
      <trkpt lat="42.39671" lon="0.05545">
        <ele>745.3</ele>
        <time>2016-07-24T10:06:01Z</time>
      </trkpt>
      <trkpt lat="42.39675" lon="0.05544">
        <ele>745.2</ele>
        <time>2016-07-24T10:06:03Z</time>
      </trkpt>
      <trkpt lat="42.39678" lon="0.05543">
        <ele>745.1</ele>
        <time>2016-07-24T10:06:05Z</time>
      </trkpt>
      <trkpt lat="42.39683" lon="0.05543">
        <ele>744.9</ele>
        <time>2016-07-24T10:06:07Z</time>
      </trkpt>
      <trkpt lat="42.39687" lon="0.05542">
        <ele>744.8</ele>
        <time>2016-07-24T10:06:09Z</time>
      </trkpt>
      <trkpt lat="42.39691" lon="0.05542">
        <ele>744.6</ele>
        <time>2016-07-24T10:06:11Z</time>
      </trkpt>
      <trkpt lat="42.39695" lon="0.05541">
        <ele>744.2</ele>
        <time>2016-07-24T10:06:13Z</time>
      </trkpt>
      <trkpt lat="42.39699" lon="0.0554">
        <ele>743.8</ele>
        <time>2016-07-24T10:06:15Z</time>
      </trkpt>
      <trkpt lat="42.39704" lon="0.0554">
        <ele>743.6</ele>
        <time>2016-07-24T10:06:17Z</time>
      </trkpt>
      <trkpt lat="42.39709" lon="0.05539">
        <ele>743.2</ele>
        <time>2016-07-24T10:06:19Z</time>
      </trkpt>
      <trkpt lat="42.39713" lon="0.05539">
        <ele>743.4</ele>
        <time>2016-07-24T10:06:21Z</time>
      </trkpt>
      <trkpt lat="42.39718" lon="0.05539">
        <ele>743.9</ele>
        <time>2016-07-24T10:06:23Z</time>
      </trkpt>
      <trkpt lat="42.39723" lon="0.0554">
        <ele>744.4</ele>
        <time>2016-07-24T10:06:25Z</time>
      </trkpt>
      <trkpt lat="42.39726" lon="0.0554">
        <ele>744.7</ele>
        <time>2016-07-24T10:06:26Z</time>
      </trkpt>
      <trkpt lat="42.39729" lon="0.05541">
        <ele>744.9</ele>
        <time>2016-07-24T10:06:27Z</time>
      </trkpt>
      <trkpt lat="42.39732" lon="0.05541">
        <ele>745.2</ele>
        <time>2016-07-24T10:06:28Z</time>
      </trkpt>
      <trkpt lat="42.39735" lon="0.05542">
        <ele>745.6</ele>
        <time>2016-07-24T10:06:29Z</time>
      </trkpt>
      <trkpt lat="42.39738" lon="0.05543">
        <ele>745.7</ele>
        <time>2016-07-24T10:06:30Z</time>
      </trkpt>
      <trkpt lat="42.3974" lon="0.05543">
        <ele>745.9</ele>
        <time>2016-07-24T10:06:31Z</time>
      </trkpt>
      <trkpt lat="42.39743" lon="0.05543">
        <ele>746</ele>
        <time>2016-07-24T10:06:32Z</time>
      </trkpt>
      <trkpt lat="42.39746" lon="0.05543">
        <ele>746.2</ele>
        <time>2016-07-24T10:06:33Z</time>
      </trkpt>
      <trkpt lat="42.39749" lon="0.05544">
        <ele>746.4</ele>
        <time>2016-07-24T10:06:34Z</time>
      </trkpt>
      <trkpt lat="42.39753" lon="0.05543">
        <ele>746.6</ele>
        <time>2016-07-24T10:06:35Z</time>
      </trkpt>
      <trkpt lat="42.39756" lon="0.05543">
        <ele>746.8</ele>
        <time>2016-07-24T10:06:36Z</time>
      </trkpt>
      <trkpt lat="42.3976" lon="0.05543">
        <ele>747.1</ele>
        <time>2016-07-24T10:06:37Z</time>
      </trkpt>
      <trkpt lat="42.39764" lon="0.05542">
        <ele>747.3</ele>
        <time>2016-07-24T10:06:38Z</time>
      </trkpt>
      <trkpt lat="42.39768" lon="0.05542">
        <ele>747.5</ele>
        <time>2016-07-24T10:06:39Z</time>
      </trkpt>
      <trkpt lat="42.39772" lon="0.05542">
        <ele>747.8</ele>
        <time>2016-07-24T10:06:40Z</time>
      </trkpt>
      <trkpt lat="42.39775" lon="0.05542">
        <ele>748</ele>
        <time>2016-07-24T10:06:41Z</time>
      </trkpt>
      <trkpt lat="42.39779" lon="0.05543">
        <ele>748.2</ele>
        <time>2016-07-24T10:06:42Z</time>
      </trkpt>
      <trkpt lat="42.39783" lon="0.05543">
        <ele>748.4</ele>
        <time>2016-07-24T10:06:43Z</time>
      </trkpt>
      <trkpt lat="42.39786" lon="0.05543">
        <ele>748.6</ele>
        <time>2016-07-24T10:06:44Z</time>
      </trkpt>
      <trkpt lat="42.3979" lon="0.05543">
        <ele>748.8</ele>
        <time>2016-07-24T10:06:45Z</time>
      </trkpt>
      <trkpt lat="42.39794" lon="0.05544">
        <ele>749</ele>
        <time>2016-07-24T10:06:46Z</time>
      </trkpt>
      <trkpt lat="42.39798" lon="0.05544">
        <ele>749.2</ele>
        <time>2016-07-24T10:06:47Z</time>
      </trkpt>
      <trkpt lat="42.39802" lon="0.05544">
        <ele>749.4</ele>
        <time>2016-07-24T10:06:48Z</time>
      </trkpt>
      <trkpt lat="42.39805" lon="0.05545">
        <ele>749.6</ele>
        <time>2016-07-24T10:06:49Z</time>
      </trkpt>
      <trkpt lat="42.39808" lon="0.05545">
        <ele>749.8</ele>
        <time>2016-07-24T10:06:50Z</time>
      </trkpt>
      <trkpt lat="42.39813" lon="0.05545">
        <ele>750.1</ele>
        <time>2016-07-24T10:06:52Z</time>
      </trkpt>
      <trkpt lat="42.39817" lon="0.05544">
        <ele>750.3</ele>
        <time>2016-07-24T10:06:54Z</time>
      </trkpt>
      <trkpt lat="42.3982" lon="0.05543">
        <ele>750.6</ele>
        <time>2016-07-24T10:06:56Z</time>
      </trkpt>
      <trkpt lat="42.39824" lon="0.05543">
        <ele>750.8</ele>
        <time>2016-07-24T10:06:58Z</time>
      </trkpt>
      <trkpt lat="42.39827" lon="0.05544">
        <ele>751</ele>
        <time>2016-07-24T10:07:00Z</time>
      </trkpt>
      <trkpt lat="42.3983" lon="0.05544">
        <ele>751.1</ele>
        <time>2016-07-24T10:07:02Z</time>
      </trkpt>
      <trkpt lat="42.39833" lon="0.05543">
        <ele>751.4</ele>
        <time>2016-07-24T10:07:04Z</time>
      </trkpt>
      <trkpt lat="42.39836" lon="0.05543">
        <ele>751.6</ele>
        <time>2016-07-24T10:07:06Z</time>
      </trkpt>
      <trkpt lat="42.39839" lon="0.05543">
        <ele>751.8</ele>
        <time>2016-07-24T10:07:08Z</time>
      </trkpt>
      <trkpt lat="42.39842" lon="0.05543">
        <ele>752</ele>
        <time>2016-07-24T10:07:10Z</time>
      </trkpt>
      <trkpt lat="42.39846" lon="0.05543">
        <ele>752.1</ele>
        <time>2016-07-24T10:07:12Z</time>
      </trkpt>
      <trkpt lat="42.39849" lon="0.05544">
        <ele>752.3</ele>
        <time>2016-07-24T10:07:14Z</time>
      </trkpt>
      <trkpt lat="42.39852" lon="0.05544">
        <ele>752.5</ele>
        <time>2016-07-24T10:07:16Z</time>
      </trkpt>
      <trkpt lat="42.39855" lon="0.05544">
        <ele>752.7</ele>
        <time>2016-07-24T10:07:18Z</time>
      </trkpt>
      <trkpt lat="42.39859" lon="0.05543">
        <ele>753</ele>
        <time>2016-07-24T10:07:20Z</time>
      </trkpt>
      <trkpt lat="42.39862" lon="0.05542">
        <ele>753.2</ele>
        <time>2016-07-24T10:07:22Z</time>
      </trkpt>
      <trkpt lat="42.39865" lon="0.05542">
        <ele>753.4</ele>
        <time>2016-07-24T10:07:24Z</time>
      </trkpt>
      <trkpt lat="42.39868" lon="0.05543">
        <ele>753.5</ele>
        <time>2016-07-24T10:07:26Z</time>
      </trkpt>
      <trkpt lat="42.39871" lon="0.05544">
        <ele>753.6</ele>
        <time>2016-07-24T10:07:28Z</time>
      </trkpt>
      <trkpt lat="42.39874" lon="0.05544">
        <ele>753.8</ele>
        <time>2016-07-24T10:07:30Z</time>
      </trkpt>
      <trkpt lat="42.39877" lon="0.05543">
        <ele>754.1</ele>
        <time>2016-07-24T10:07:32Z</time>
      </trkpt>
      <trkpt lat="42.39881" lon="0.05542">
        <ele>754.6</ele>
        <time>2016-07-24T10:07:34Z</time>
      </trkpt>
      <trkpt lat="42.39886" lon="0.05541">
        <ele>755</ele>
        <time>2016-07-24T10:07:36Z</time>
      </trkpt>
      <trkpt lat="42.3989" lon="0.0554">
        <ele>755.2</ele>
        <time>2016-07-24T10:07:38Z</time>
      </trkpt>
      <trkpt lat="42.39894" lon="0.05539">
        <ele>755.4</ele>
        <time>2016-07-24T10:07:40Z</time>
      </trkpt>
      <trkpt lat="42.39897" lon="0.05538">
        <ele>755.4</ele>
        <time>2016-07-24T10:07:42Z</time>
      </trkpt>
      <trkpt lat="42.399" lon="0.05535">
        <ele>755</ele>
        <time>2016-07-24T10:07:45Z</time>
      </trkpt>
      <trkpt lat="42.39903" lon="0.05531">
        <ele>754.5</ele>
        <time>2016-07-24T10:07:48Z</time>
      </trkpt>
      <trkpt lat="42.39905" lon="0.05528">
        <ele>754.1</ele>
        <time>2016-07-24T10:07:53Z</time>
      </trkpt>
      <trkpt lat="42.39907" lon="0.05527">
        <ele>754</ele>
        <time>2016-07-24T10:07:56Z</time>
      </trkpt>
      <trkpt lat="42.3991" lon="0.05526">
        <ele>754</ele>
        <time>2016-07-24T10:07:59Z</time>
      </trkpt>
      <trkpt lat="42.39914" lon="0.05524">
        <ele>754.1</ele>
        <time>2016-07-24T10:08:02Z</time>
      </trkpt>
      <trkpt lat="42.39917" lon="0.05524">
        <ele>754.4</ele>
        <time>2016-07-24T10:08:04Z</time>
      </trkpt>
      <trkpt lat="42.39921" lon="0.05524">
        <ele>754.8</ele>
        <time>2016-07-24T10:08:06Z</time>
      </trkpt>
      <trkpt lat="42.39924" lon="0.05524">
        <ele>755.1</ele>
        <time>2016-07-24T10:08:08Z</time>
      </trkpt>
      <trkpt lat="42.39927" lon="0.05524">
        <ele>755.4</ele>
        <time>2016-07-24T10:08:10Z</time>
      </trkpt>
      <trkpt lat="42.3993" lon="0.05525">
        <ele>755.9</ele>
        <time>2016-07-24T10:08:12Z</time>
      </trkpt>
      <trkpt lat="42.39933" lon="0.05526">
        <ele>756.5</ele>
        <time>2016-07-24T10:08:14Z</time>
      </trkpt>
      <trkpt lat="42.39936" lon="0.05526">
        <ele>757</ele>
        <time>2016-07-24T10:08:16Z</time>
      </trkpt>
      <trkpt lat="42.39939" lon="0.05527">
        <ele>757.4</ele>
        <time>2016-07-24T10:08:18Z</time>
      </trkpt>
      <trkpt lat="42.39943" lon="0.05528">
        <ele>758.2</ele>
        <time>2016-07-24T10:08:21Z</time>
      </trkpt>
      <trkpt lat="42.39946" lon="0.0553">
        <ele>758.8</ele>
        <time>2016-07-24T10:08:23Z</time>
      </trkpt>
      <trkpt lat="42.39949" lon="0.0553">
        <ele>759.3</ele>
        <time>2016-07-24T10:08:25Z</time>
      </trkpt>
      <trkpt lat="42.39952" lon="0.05531">
        <ele>759.7</ele>
        <time>2016-07-24T10:08:27Z</time>
      </trkpt>
      <trkpt lat="42.39955" lon="0.05531">
        <ele>760.1</ele>
        <time>2016-07-24T10:08:29Z</time>
      </trkpt>
      <trkpt lat="42.39958" lon="0.05532">
        <ele>760.7</ele>
        <time>2016-07-24T10:08:39Z</time>
      </trkpt>
      <trkpt lat="42.39962" lon="0.05531">
        <ele>761</ele>
        <time>2016-07-24T10:08:42Z</time>
      </trkpt>
      <trkpt lat="42.39966" lon="0.05532">
        <ele>761.4</ele>
        <time>2016-07-24T10:08:44Z</time>
      </trkpt>
      <trkpt lat="42.39968" lon="0.05532">
        <ele>761.9</ele>
        <time>2016-07-24T10:08:47Z</time>
      </trkpt>
      <trkpt lat="42.39972" lon="0.05532">
        <ele>762.2</ele>
        <time>2016-07-24T10:08:51Z</time>
      </trkpt>
      <trkpt lat="42.39976" lon="0.05531">
        <ele>762.4</ele>
        <time>2016-07-24T10:08:53Z</time>
      </trkpt>
      <trkpt lat="42.39981" lon="0.0553">
        <ele>762.7</ele>
        <time>2016-07-24T10:08:55Z</time>
      </trkpt>
      <trkpt lat="42.39984" lon="0.05529">
        <ele>763</ele>
        <time>2016-07-24T10:08:57Z</time>
      </trkpt>
      <trkpt lat="42.39988" lon="0.0553">
        <ele>763.5</ele>
        <time>2016-07-24T10:08:59Z</time>
      </trkpt>
      <trkpt lat="42.39993" lon="0.0553">
        <ele>764.1</ele>
        <time>2016-07-24T10:09:01Z</time>
      </trkpt>
      <trkpt lat="42.39997" lon="0.05531">
        <ele>764.7</ele>
        <time>2016-07-24T10:09:03Z</time>
      </trkpt>
      <trkpt lat="42.40001" lon="0.05531">
        <ele>765.3</ele>
        <time>2016-07-24T10:09:05Z</time>
      </trkpt>
      <trkpt lat="42.40005" lon="0.05531">
        <ele>765.8</ele>
        <time>2016-07-24T10:09:07Z</time>
      </trkpt>
      <trkpt lat="42.4001" lon="0.05531">
        <ele>766.3</ele>
        <time>2016-07-24T10:09:09Z</time>
      </trkpt>
      <trkpt lat="42.40014" lon="0.05531">
        <ele>766.7</ele>
        <time>2016-07-24T10:09:11Z</time>
      </trkpt>
      <trkpt lat="42.40018" lon="0.05531">
        <ele>767.1</ele>
        <time>2016-07-24T10:09:13Z</time>
      </trkpt>
      <trkpt lat="42.40022" lon="0.05531">
        <ele>767.5</ele>
        <time>2016-07-24T10:09:15Z</time>
      </trkpt>
      <trkpt lat="42.40026" lon="0.0553">
        <ele>767.8</ele>
        <time>2016-07-24T10:09:17Z</time>
      </trkpt>
      <trkpt lat="42.4003" lon="0.0553">
        <ele>768.2</ele>
        <time>2016-07-24T10:09:19Z</time>
      </trkpt>
      <trkpt lat="42.40034" lon="0.05529">
        <ele>768.5</ele>
        <time>2016-07-24T10:09:21Z</time>
      </trkpt>
      <trkpt lat="42.40039" lon="0.05529">
        <ele>769.1</ele>
        <time>2016-07-24T10:09:23Z</time>
      </trkpt>
      <trkpt lat="42.40042" lon="0.05529">
        <ele>769.5</ele>
        <time>2016-07-24T10:09:24Z</time>
      </trkpt>
      <trkpt lat="42.40045" lon="0.05529">
        <ele>769.7</ele>
        <time>2016-07-24T10:09:25Z</time>
      </trkpt>
      <trkpt lat="42.40048" lon="0.05529">
        <ele>769.9</ele>
        <time>2016-07-24T10:09:26Z</time>
      </trkpt>
      <trkpt lat="42.4005" lon="0.05528">
        <ele>769.9</ele>
        <time>2016-07-24T10:09:27Z</time>
      </trkpt>
      <trkpt lat="42.40053" lon="0.05527">
        <ele>770</ele>
        <time>2016-07-24T10:09:28Z</time>
      </trkpt>
      <trkpt lat="42.40056" lon="0.05526">
        <ele>770</ele>
        <time>2016-07-24T10:09:29Z</time>
      </trkpt>
      <trkpt lat="42.40058" lon="0.05525">
        <ele>770.1</ele>
        <time>2016-07-24T10:09:30Z</time>
      </trkpt>
      <trkpt lat="42.40064" lon="0.05523">
        <ele>770</ele>
        <time>2016-07-24T10:09:32Z</time>
      </trkpt>
      <trkpt lat="42.40067" lon="0.05521">
        <ele>769.8</ele>
        <time>2016-07-24T10:09:33Z</time>
      </trkpt>
      <trkpt lat="42.40069" lon="0.05519">
        <ele>769.4</ele>
        <time>2016-07-24T10:09:34Z</time>
      </trkpt>
      <trkpt lat="42.40072" lon="0.05516">
        <ele>769.1</ele>
        <time>2016-07-24T10:09:35Z</time>
      </trkpt>
      <trkpt lat="42.40075" lon="0.05514">
        <ele>768.9</ele>
        <time>2016-07-24T10:09:36Z</time>
      </trkpt>
      <trkpt lat="42.40079" lon="0.05512">
        <ele>768.8</ele>
        <time>2016-07-24T10:09:37Z</time>
      </trkpt>
      <trkpt lat="42.40082" lon="0.05511">
        <ele>768.8</ele>
        <time>2016-07-24T10:09:38Z</time>
      </trkpt>
      <trkpt lat="42.40085" lon="0.05509">
        <ele>768.8</ele>
        <time>2016-07-24T10:09:39Z</time>
      </trkpt>
      <trkpt lat="42.40088" lon="0.05508">
        <ele>768.8</ele>
        <time>2016-07-24T10:09:40Z</time>
      </trkpt>
      <trkpt lat="42.40091" lon="0.05507">
        <ele>769</ele>
        <time>2016-07-24T10:09:41Z</time>
      </trkpt>
      <trkpt lat="42.40094" lon="0.05507">
        <ele>769.2</ele>
        <time>2016-07-24T10:09:42Z</time>
      </trkpt>
      <trkpt lat="42.40098" lon="0.05506">
        <ele>769.5</ele>
        <time>2016-07-24T10:09:43Z</time>
      </trkpt>
      <trkpt lat="42.40101" lon="0.05505">
        <ele>769.7</ele>
        <time>2016-07-24T10:09:44Z</time>
      </trkpt>
      <trkpt lat="42.40105" lon="0.05503">
        <ele>769.7</ele>
        <time>2016-07-24T10:09:45Z</time>
      </trkpt>
      <trkpt lat="42.4011" lon="0.05501">
        <ele>769.9</ele>
        <time>2016-07-24T10:09:46Z</time>
      </trkpt>
      <trkpt lat="42.40114" lon="0.055">
        <ele>770</ele>
        <time>2016-07-24T10:09:47Z</time>
      </trkpt>
      <trkpt lat="42.40118" lon="0.05498">
        <ele>770.1</ele>
        <time>2016-07-24T10:09:48Z</time>
      </trkpt>
      <trkpt lat="42.40122" lon="0.05496">
        <ele>770.2</ele>
        <time>2016-07-24T10:09:49Z</time>
      </trkpt>
      <trkpt lat="42.40125" lon="0.05494">
        <ele>770.3</ele>
        <time>2016-07-24T10:09:50Z</time>
      </trkpt>
      <trkpt lat="42.40129" lon="0.05493">
        <ele>770.4</ele>
        <time>2016-07-24T10:09:51Z</time>
      </trkpt>
      <trkpt lat="42.40132" lon="0.05492">
        <ele>770.6</ele>
        <time>2016-07-24T10:09:52Z</time>
      </trkpt>
      <trkpt lat="42.40135" lon="0.05491">
        <ele>770.9</ele>
        <time>2016-07-24T10:09:53Z</time>
      </trkpt>
      <trkpt lat="42.40139" lon="0.0549">
        <ele>771.4</ele>
        <time>2016-07-24T10:09:55Z</time>
      </trkpt>
      <trkpt lat="42.40144" lon="0.05488">
        <ele>771.7</ele>
        <time>2016-07-24T10:09:57Z</time>
      </trkpt>
      <trkpt lat="42.40148" lon="0.05486">
        <ele>771.8</ele>
        <time>2016-07-24T10:09:59Z</time>
      </trkpt>
      <trkpt lat="42.40152" lon="0.05484">
        <ele>771.9</ele>
        <time>2016-07-24T10:10:01Z</time>
      </trkpt>
      <trkpt lat="42.40156" lon="0.05482">
        <ele>772</ele>
        <time>2016-07-24T10:10:03Z</time>
      </trkpt>
      <trkpt lat="42.40161" lon="0.05479">
        <ele>772.1</ele>
        <time>2016-07-24T10:10:05Z</time>
      </trkpt>
      <trkpt lat="42.40166" lon="0.05476">
        <ele>772</ele>
        <time>2016-07-24T10:10:07Z</time>
      </trkpt>
      <trkpt lat="42.40169" lon="0.05474">
        <ele>772.1</ele>
        <time>2016-07-24T10:10:08Z</time>
      </trkpt>
      <trkpt lat="42.40172" lon="0.05473">
        <ele>772.4</ele>
        <time>2016-07-24T10:10:09Z</time>
      </trkpt>
      <trkpt lat="42.40175" lon="0.05473">
        <ele>772.8</ele>
        <time>2016-07-24T10:10:10Z</time>
      </trkpt>
      <trkpt lat="42.40178" lon="0.05473">
        <ele>773.2</ele>
        <time>2016-07-24T10:10:11Z</time>
      </trkpt>
      <trkpt lat="42.40181" lon="0.05473">
        <ele>773.6</ele>
        <time>2016-07-24T10:10:12Z</time>
      </trkpt>
      <trkpt lat="42.40184" lon="0.05474">
        <ele>774.3</ele>
        <time>2016-07-24T10:10:13Z</time>
      </trkpt>
      <trkpt lat="42.40187" lon="0.05474">
        <ele>774.9</ele>
        <time>2016-07-24T10:10:14Z</time>
      </trkpt>
      <trkpt lat="42.40191" lon="0.05474">
        <ele>775.4</ele>
        <time>2016-07-24T10:10:15Z</time>
      </trkpt>
      <trkpt lat="42.40194" lon="0.05474">
        <ele>775.8</ele>
        <time>2016-07-24T10:10:16Z</time>
      </trkpt>
      <trkpt lat="42.40198" lon="0.05473">
        <ele>776.1</ele>
        <time>2016-07-24T10:10:17Z</time>
      </trkpt>
      <trkpt lat="42.40201" lon="0.05472">
        <ele>776.4</ele>
        <time>2016-07-24T10:10:18Z</time>
      </trkpt>
      <trkpt lat="42.40204" lon="0.05472">
        <ele>776.7</ele>
        <time>2016-07-24T10:10:19Z</time>
      </trkpt>
      <trkpt lat="42.40207" lon="0.05471">
        <ele>777</ele>
        <time>2016-07-24T10:10:20Z</time>
      </trkpt>
      <trkpt lat="42.4021" lon="0.0547">
        <ele>777</ele>
        <time>2016-07-24T10:10:21Z</time>
      </trkpt>
      <trkpt lat="42.40213" lon="0.05469">
        <ele>776.9</ele>
        <time>2016-07-24T10:10:22Z</time>
      </trkpt>
      <trkpt lat="42.40216" lon="0.05468">
        <ele>776.9</ele>
        <time>2016-07-24T10:10:23Z</time>
      </trkpt>
      <trkpt lat="42.40219" lon="0.05468">
        <ele>777</ele>
        <time>2016-07-24T10:10:24Z</time>
      </trkpt>
      <trkpt lat="42.40222" lon="0.05468">
        <ele>777.2</ele>
        <time>2016-07-24T10:10:25Z</time>
      </trkpt>
      <trkpt lat="42.40225" lon="0.05469">
        <ele>777.5</ele>
        <time>2016-07-24T10:10:26Z</time>
      </trkpt>
      <trkpt lat="42.40229" lon="0.0547">
        <ele>777.9</ele>
        <time>2016-07-24T10:10:27Z</time>
      </trkpt>
      <trkpt lat="42.40233" lon="0.0547">
        <ele>778.1</ele>
        <time>2016-07-24T10:10:28Z</time>
      </trkpt>
      <trkpt lat="42.40238" lon="0.05469">
        <ele>778.1</ele>
        <time>2016-07-24T10:10:29Z</time>
      </trkpt>
      <trkpt lat="42.40242" lon="0.05468">
        <ele>778.2</ele>
        <time>2016-07-24T10:10:30Z</time>
      </trkpt>
      <trkpt lat="42.40247" lon="0.05467">
        <ele>778.1</ele>
        <time>2016-07-24T10:10:31Z</time>
      </trkpt>
      <trkpt lat="42.40251" lon="0.05465">
        <ele>777.8</ele>
        <time>2016-07-24T10:10:32Z</time>
      </trkpt>
      <trkpt lat="42.40255" lon="0.05463">
        <ele>777.5</ele>
        <time>2016-07-24T10:10:33Z</time>
      </trkpt>
      <trkpt lat="42.40259" lon="0.05461">
        <ele>777.2</ele>
        <time>2016-07-24T10:10:34Z</time>
      </trkpt>
      <trkpt lat="42.40263" lon="0.05459">
        <ele>776.9</ele>
        <time>2016-07-24T10:10:35Z</time>
      </trkpt>
      <trkpt lat="42.40267" lon="0.05458">
        <ele>776.7</ele>
        <time>2016-07-24T10:10:36Z</time>
      </trkpt>
      <trkpt lat="42.40272" lon="0.05456">
        <ele>776.5</ele>
        <time>2016-07-24T10:10:37Z</time>
      </trkpt>
      <trkpt lat="42.40276" lon="0.05456">
        <ele>776.5</ele>
        <time>2016-07-24T10:10:38Z</time>
      </trkpt>
      <trkpt lat="42.40279" lon="0.05456">
        <ele>776.7</ele>
        <time>2016-07-24T10:10:39Z</time>
      </trkpt>
      <trkpt lat="42.40283" lon="0.05456">
        <ele>777</ele>
        <time>2016-07-24T10:10:40Z</time>
      </trkpt>
      <trkpt lat="42.40287" lon="0.05457">
        <ele>777.4</ele>
        <time>2016-07-24T10:10:41Z</time>
      </trkpt>
      <trkpt lat="42.40291" lon="0.05458">
        <ele>777.9</ele>
        <time>2016-07-24T10:10:42Z</time>
      </trkpt>
      <trkpt lat="42.40295" lon="0.0546">
        <ele>778.2</ele>
        <time>2016-07-24T10:10:43Z</time>
      </trkpt>
      <trkpt lat="42.40299" lon="0.05462">
        <ele>778.7</ele>
        <time>2016-07-24T10:10:44Z</time>
      </trkpt>
      <trkpt lat="42.40303" lon="0.05464">
        <ele>779.2</ele>
        <time>2016-07-24T10:10:45Z</time>
      </trkpt>
      <trkpt lat="42.40307" lon="0.05466">
        <ele>779.7</ele>
        <time>2016-07-24T10:10:46Z</time>
      </trkpt>
      <trkpt lat="42.4031" lon="0.05469">
        <ele>780.2</ele>
        <time>2016-07-24T10:10:47Z</time>
      </trkpt>
      <trkpt lat="42.40314" lon="0.0547">
        <ele>780.5</ele>
        <time>2016-07-24T10:10:48Z</time>
      </trkpt>
      <trkpt lat="42.40318" lon="0.05471">
        <ele>780.7</ele>
        <time>2016-07-24T10:10:49Z</time>
      </trkpt>
      <trkpt lat="42.40322" lon="0.05472">
        <ele>780.7</ele>
        <time>2016-07-24T10:10:50Z</time>
      </trkpt>
      <trkpt lat="42.40326" lon="0.05472">
        <ele>780.7</ele>
        <time>2016-07-24T10:10:51Z</time>
      </trkpt>
      <trkpt lat="42.4033" lon="0.05472">
        <ele>780.7</ele>
        <time>2016-07-24T10:10:52Z</time>
      </trkpt>
      <trkpt lat="42.40334" lon="0.05472">
        <ele>780.6</ele>
        <time>2016-07-24T10:10:53Z</time>
      </trkpt>
      <trkpt lat="42.40338" lon="0.05472">
        <ele>780.5</ele>
        <time>2016-07-24T10:10:54Z</time>
      </trkpt>
      <trkpt lat="42.40342" lon="0.05472">
        <ele>780.4</ele>
        <time>2016-07-24T10:10:55Z</time>
      </trkpt>
      <trkpt lat="42.40345" lon="0.05473">
        <ele>780.4</ele>
        <time>2016-07-24T10:10:56Z</time>
      </trkpt>
      <trkpt lat="42.40348" lon="0.05474">
        <ele>780.6</ele>
        <time>2016-07-24T10:10:57Z</time>
      </trkpt>
      <trkpt lat="42.40351" lon="0.05476">
        <ele>781.1</ele>
        <time>2016-07-24T10:10:58Z</time>
      </trkpt>
      <trkpt lat="42.40354" lon="0.05479">
        <ele>781.7</ele>
        <time>2016-07-24T10:10:59Z</time>
      </trkpt>
      <trkpt lat="42.40358" lon="0.05481">
        <ele>782.1</ele>
        <time>2016-07-24T10:11:00Z</time>
      </trkpt>
      <trkpt lat="42.40362" lon="0.05481">
        <ele>782</ele>
        <time>2016-07-24T10:11:01Z</time>
      </trkpt>
      <trkpt lat="42.40366" lon="0.05479">
        <ele>781.3</ele>
        <time>2016-07-24T10:11:02Z</time>
      </trkpt>
      <trkpt lat="42.4037" lon="0.05475">
        <ele>780.3</ele>
        <time>2016-07-24T10:11:03Z</time>
      </trkpt>
      <trkpt lat="42.40373" lon="0.05471">
        <ele>779.2</ele>
        <time>2016-07-24T10:11:04Z</time>
      </trkpt>
      <trkpt lat="42.40375" lon="0.05466">
        <ele>778</ele>
        <time>2016-07-24T10:11:05Z</time>
      </trkpt>
      <trkpt lat="42.40378" lon="0.05462">
        <ele>776.6</ele>
        <time>2016-07-24T10:11:06Z</time>
      </trkpt>
      <trkpt lat="42.40381" lon="0.05457">
        <ele>775.1</ele>
        <time>2016-07-24T10:11:07Z</time>
      </trkpt>
      <trkpt lat="42.40384" lon="0.05454">
        <ele>773.9</ele>
        <time>2016-07-24T10:11:08Z</time>
      </trkpt>
      <trkpt lat="42.40388" lon="0.05451">
        <ele>773</ele>
        <time>2016-07-24T10:11:09Z</time>
      </trkpt>
      <trkpt lat="42.40393" lon="0.0545">
        <ele>772.4</ele>
        <time>2016-07-24T10:11:10Z</time>
      </trkpt>
      <trkpt lat="42.40398" lon="0.0545">
        <ele>772</ele>
        <time>2016-07-24T10:11:11Z</time>
      </trkpt>
      <trkpt lat="42.40402" lon="0.05452">
        <ele>772</ele>
        <time>2016-07-24T10:11:12Z</time>
      </trkpt>
      <trkpt lat="42.40407" lon="0.05455">
        <ele>772.2</ele>
        <time>2016-07-24T10:11:13Z</time>
      </trkpt>
      <trkpt lat="42.40411" lon="0.05458">
        <ele>772.6</ele>
        <time>2016-07-24T10:11:14Z</time>
      </trkpt>
      <trkpt lat="42.40415" lon="0.05461">
        <ele>772.8</ele>
        <time>2016-07-24T10:11:15Z</time>
      </trkpt>
      <trkpt lat="42.40419" lon="0.05464">
        <ele>772.9</ele>
        <time>2016-07-24T10:11:16Z</time>
      </trkpt>
      <trkpt lat="42.40423" lon="0.05467">
        <ele>773.1</ele>
        <time>2016-07-24T10:11:17Z</time>
      </trkpt>
      <trkpt lat="42.40427" lon="0.0547">
        <ele>773.3</ele>
        <time>2016-07-24T10:11:18Z</time>
      </trkpt>
      <trkpt lat="42.4043" lon="0.05473">
        <ele>773.5</ele>
        <time>2016-07-24T10:11:19Z</time>
      </trkpt>
      <trkpt lat="42.40434" lon="0.05476">
        <ele>773.6</ele>
        <time>2016-07-24T10:11:20Z</time>
      </trkpt>
      <trkpt lat="42.40437" lon="0.05477">
        <ele>773.5</ele>
        <time>2016-07-24T10:11:21Z</time>
      </trkpt>
      <trkpt lat="42.40442" lon="0.05475">
        <ele>772.4</ele>
        <time>2016-07-24T10:11:23Z</time>
      </trkpt>
      <trkpt lat="42.40445" lon="0.05471">
        <ele>771.4</ele>
        <time>2016-07-24T10:11:24Z</time>
      </trkpt>
      <trkpt lat="42.40447" lon="0.05466">
        <ele>770.3</ele>
        <time>2016-07-24T10:11:25Z</time>
      </trkpt>
      <trkpt lat="42.40448" lon="0.05461">
        <ele>769.5</ele>
        <time>2016-07-24T10:11:26Z</time>
      </trkpt>
      <trkpt lat="42.40447" lon="0.05456">
        <ele>768.8</ele>
        <time>2016-07-24T10:11:27Z</time>
      </trkpt>
      <trkpt lat="42.40446" lon="0.05451">
        <ele>768.2</ele>
        <time>2016-07-24T10:11:28Z</time>
      </trkpt>
      <trkpt lat="42.40444" lon="0.05445">
        <ele>767.6</ele>
        <time>2016-07-24T10:11:29Z</time>
      </trkpt>
      <trkpt lat="42.40442" lon="0.0544">
        <ele>766.9</ele>
        <time>2016-07-24T10:11:30Z</time>
      </trkpt>
      <trkpt lat="42.4044" lon="0.05435">
        <ele>766.3</ele>
        <time>2016-07-24T10:11:31Z</time>
      </trkpt>
      <trkpt lat="42.40438" lon="0.05431">
        <ele>765.8</ele>
        <time>2016-07-24T10:11:32Z</time>
      </trkpt>
      <trkpt lat="42.40437" lon="0.05427">
        <ele>765.3</ele>
        <time>2016-07-24T10:11:33Z</time>
      </trkpt>
      <trkpt lat="42.40435" lon="0.05421">
        <ele>764.5</ele>
        <time>2016-07-24T10:11:35Z</time>
      </trkpt>
      <trkpt lat="42.40438" lon="0.05419">
        <ele>764.1</ele>
        <time>2016-07-24T10:11:38Z</time>
      </trkpt>
      <trkpt lat="42.40441" lon="0.05422">
        <ele>764.4</ele>
        <time>2016-07-24T10:11:40Z</time>
      </trkpt>
      <trkpt lat="42.40445" lon="0.05426">
        <ele>764.9</ele>
        <time>2016-07-24T10:11:42Z</time>
      </trkpt>
      <trkpt lat="42.40448" lon="0.05432">
        <ele>765.6</ele>
        <time>2016-07-24T10:11:44Z</time>
      </trkpt>
      <trkpt lat="42.40449" lon="0.05436">
        <ele>766</ele>
        <time>2016-07-24T10:11:45Z</time>
      </trkpt>
      <trkpt lat="42.40451" lon="0.05439">
        <ele>766.3</ele>
        <time>2016-07-24T10:11:46Z</time>
      </trkpt>
      <trkpt lat="42.40453" lon="0.05442">
        <ele>766.6</ele>
        <time>2016-07-24T10:11:47Z</time>
      </trkpt>
      <trkpt lat="42.40454" lon="0.05446">
        <ele>767</ele>
        <time>2016-07-24T10:11:48Z</time>
      </trkpt>
      <trkpt lat="42.40455" lon="0.0545">
        <ele>767.4</ele>
        <time>2016-07-24T10:11:49Z</time>
      </trkpt>
      <trkpt lat="42.40456" lon="0.05455">
        <ele>767.9</ele>
        <time>2016-07-24T10:11:50Z</time>
      </trkpt>
      <trkpt lat="42.40456" lon="0.05461">
        <ele>768.6</ele>
        <time>2016-07-24T10:11:51Z</time>
      </trkpt>
      <trkpt lat="42.40455" lon="0.05465">
        <ele>769.4</ele>
        <time>2016-07-24T10:11:52Z</time>
      </trkpt>
      <trkpt lat="42.40455" lon="0.05469">
        <ele>770</ele>
        <time>2016-07-24T10:11:53Z</time>
      </trkpt>
      <trkpt lat="42.40454" lon="0.05472">
        <ele>770.7</ele>
        <time>2016-07-24T10:11:54Z</time>
      </trkpt>
      <trkpt lat="42.40453" lon="0.05476">
        <ele>771.4</ele>
        <time>2016-07-24T10:11:55Z</time>
      </trkpt>
      <trkpt lat="42.40454" lon="0.05481">
        <ele>772.1</ele>
        <time>2016-07-24T10:11:56Z</time>
      </trkpt>
      <trkpt lat="42.40454" lon="0.05485">
        <ele>772.6</ele>
        <time>2016-07-24T10:11:57Z</time>
      </trkpt>
      <trkpt lat="42.40456" lon="0.05488">
        <ele>773</ele>
        <time>2016-07-24T10:11:58Z</time>
      </trkpt>
      <trkpt lat="42.40457" lon="0.05492">
        <ele>773.4</ele>
        <time>2016-07-24T10:11:59Z</time>
      </trkpt>
      <trkpt lat="42.40458" lon="0.05495">
        <ele>773.8</ele>
        <time>2016-07-24T10:12:00Z</time>
      </trkpt>
      <trkpt lat="42.40459" lon="0.05498">
        <ele>774</ele>
        <time>2016-07-24T10:12:01Z</time>
      </trkpt>
      <trkpt lat="42.4046" lon="0.05502">
        <ele>774.3</ele>
        <time>2016-07-24T10:12:02Z</time>
      </trkpt>
      <trkpt lat="42.40461" lon="0.05506">
        <ele>774.6</ele>
        <time>2016-07-24T10:12:03Z</time>
      </trkpt>
      <trkpt lat="42.40462" lon="0.05509">
        <ele>775</ele>
        <time>2016-07-24T10:12:04Z</time>
      </trkpt>
      <trkpt lat="42.40463" lon="0.05513">
        <ele>775.4</ele>
        <time>2016-07-24T10:12:05Z</time>
      </trkpt>
      <trkpt lat="42.40464" lon="0.05517">
        <ele>775.8</ele>
        <time>2016-07-24T10:12:06Z</time>
      </trkpt>
      <trkpt lat="42.40464" lon="0.05521">
        <ele>776.3</ele>
        <time>2016-07-24T10:12:07Z</time>
      </trkpt>
      <trkpt lat="42.40465" lon="0.05527">
        <ele>777</ele>
        <time>2016-07-24T10:12:09Z</time>
      </trkpt>
      <trkpt lat="42.40466" lon="0.05533">
        <ele>777.6</ele>
        <time>2016-07-24T10:12:11Z</time>
      </trkpt>
      <trkpt lat="42.40466" lon="0.05537">
        <ele>778.1</ele>
        <time>2016-07-24T10:12:13Z</time>
      </trkpt>
      <trkpt lat="42.40467" lon="0.05541">
        <ele>778.6</ele>
        <time>2016-07-24T10:12:15Z</time>
      </trkpt>
      <trkpt lat="42.40468" lon="0.05545">
        <ele>778.9</ele>
        <time>2016-07-24T10:12:17Z</time>
      </trkpt>
      <trkpt lat="42.40469" lon="0.0555">
        <ele>779.3</ele>
        <time>2016-07-24T10:12:20Z</time>
      </trkpt>
      <trkpt lat="42.4047" lon="0.05554">
        <ele>780</ele>
        <time>2016-07-24T10:12:23Z</time>
      </trkpt>
      <trkpt lat="42.40468" lon="0.05558">
        <ele>780.9</ele>
        <time>2016-07-24T10:12:25Z</time>
      </trkpt>
      <trkpt lat="42.40467" lon="0.05562">
        <ele>781.8</ele>
        <time>2016-07-24T10:12:28Z</time>
      </trkpt>
      <trkpt lat="42.40468" lon="0.05566">
        <ele>782.3</ele>
        <time>2016-07-24T10:12:31Z</time>
      </trkpt>
      <trkpt lat="42.40467" lon="0.05569">
        <ele>783.2</ele>
        <time>2016-07-24T10:12:34Z</time>
      </trkpt>
      <trkpt lat="42.40465" lon="0.05573">
        <ele>784.1</ele>
        <time>2016-07-24T10:12:36Z</time>
      </trkpt>
      <trkpt lat="42.40463" lon="0.05576">
        <ele>785.1</ele>
        <time>2016-07-24T10:12:38Z</time>
      </trkpt>
      <trkpt lat="42.40461" lon="0.05578">
        <ele>786.1</ele>
        <time>2016-07-24T10:12:40Z</time>
      </trkpt>
      <trkpt lat="42.40458" lon="0.0558">
        <ele>787</ele>
        <time>2016-07-24T10:12:42Z</time>
      </trkpt>
      <trkpt lat="42.40455" lon="0.05582">
        <ele>788.1</ele>
        <time>2016-07-24T10:12:45Z</time>
      </trkpt>
      <trkpt lat="42.40453" lon="0.05583">
        <ele>788.8</ele>
        <time>2016-07-24T10:12:53Z</time>
      </trkpt>
      <trkpt lat="42.40454" lon="0.05586">
        <ele>788.9</ele>
        <time>2016-07-24T10:13:02Z</time>
      </trkpt>
      <trkpt lat="42.40452" lon="0.05589">
        <ele>789.8</ele>
        <time>2016-07-24T10:13:07Z</time>
      </trkpt>
      <trkpt lat="42.40451" lon="0.05593">
        <ele>790.8</ele>
        <time>2016-07-24T10:13:13Z</time>
      </trkpt>
      <trkpt lat="42.40449" lon="0.05596">
        <ele>791.8</ele>
        <time>2016-07-24T10:13:18Z</time>
      </trkpt>
      <trkpt lat="42.40446" lon="0.05599">
        <ele>793</ele>
        <time>2016-07-24T10:13:22Z</time>
      </trkpt>
      <trkpt lat="42.40445" lon="0.05603">
        <ele>794</ele>
        <time>2016-07-24T10:13:26Z</time>
      </trkpt>
      <trkpt lat="42.40443" lon="0.05607">
        <ele>795.1</ele>
        <time>2016-07-24T10:13:31Z</time>
      </trkpt>
      <trkpt lat="42.40443" lon="0.05611">
        <ele>795.8</ele>
        <time>2016-07-24T10:13:35Z</time>
      </trkpt>
      <trkpt lat="42.40443" lon="0.05615">
        <ele>796.7</ele>
        <time>2016-07-24T10:13:40Z</time>
      </trkpt>
      <trkpt lat="42.4044" lon="0.05619">
        <ele>797.8</ele>
        <time>2016-07-24T10:13:46Z</time>
      </trkpt>
      <trkpt lat="42.40439" lon="0.05622">
        <ele>798.7</ele>
        <time>2016-07-24T10:13:51Z</time>
      </trkpt>
      <trkpt lat="42.4044" lon="0.05625">
        <ele>799.1</ele>
        <time>2016-07-24T10:13:58Z</time>
      </trkpt>
      <trkpt lat="42.40442" lon="0.05627">
        <ele>798.5</ele>
        <time>2016-07-24T10:14:01Z</time>
      </trkpt>
      <trkpt lat="42.40445" lon="0.05629">
        <ele>798</ele>
        <time>2016-07-24T10:14:05Z</time>
      </trkpt>
      <trkpt lat="42.40446" lon="0.05633">
        <ele>797.6</ele>
        <time>2016-07-24T10:14:10Z</time>
      </trkpt>
      <trkpt lat="42.40448" lon="0.05635">
        <ele>797.2</ele>
        <time>2016-07-24T10:14:17Z</time>
      </trkpt>
      <trkpt lat="42.40451" lon="0.05637">
        <ele>796.6</ele>
        <time>2016-07-24T10:14:23Z</time>
      </trkpt>
      <trkpt lat="42.40453" lon="0.05639">
        <ele>796.1</ele>
        <time>2016-07-24T10:14:33Z</time>
      </trkpt>
      <trkpt lat="42.40456" lon="0.0564">
        <ele>795.4</ele>
        <time>2016-07-24T10:14:38Z</time>
      </trkpt>
      <trkpt lat="42.40459" lon="0.0564">
        <ele>794.7</ele>
        <time>2016-07-24T10:14:42Z</time>
      </trkpt>
      <trkpt lat="42.40462" lon="0.05642">
        <ele>794.4</ele>
        <time>2016-07-24T10:14:49Z</time>
      </trkpt>
      <trkpt lat="42.40465" lon="0.05643">
        <ele>794</ele>
        <time>2016-07-24T10:14:53Z</time>
      </trkpt>
      <trkpt lat="42.40467" lon="0.05644">
        <ele>793.6</ele>
        <time>2016-07-24T10:15:00Z</time>
      </trkpt>
      <trkpt lat="42.4047" lon="0.05645">
        <ele>793.1</ele>
        <time>2016-07-24T10:15:05Z</time>
      </trkpt>
      <trkpt lat="42.40473" lon="0.05646">
        <ele>792.8</ele>
        <time>2016-07-24T10:15:10Z</time>
      </trkpt>
      <trkpt lat="42.40476" lon="0.05648">
        <ele>792.5</ele>
        <time>2016-07-24T10:15:14Z</time>
      </trkpt>
      <trkpt lat="42.40478" lon="0.0565">
        <ele>792.3</ele>
        <time>2016-07-24T10:15:18Z</time>
      </trkpt>
      <trkpt lat="42.40481" lon="0.05653">
        <ele>792.2</ele>
        <time>2016-07-24T10:15:25Z</time>
      </trkpt>
      <trkpt lat="42.40483" lon="0.05657">
        <ele>792.3</ele>
        <time>2016-07-24T10:15:27Z</time>
      </trkpt>
      <trkpt lat="42.40485" lon="0.05661">
        <ele>792.4</ele>
        <time>2016-07-24T10:15:29Z</time>
      </trkpt>
      <trkpt lat="42.40487" lon="0.05665">
        <ele>792.5</ele>
        <time>2016-07-24T10:15:31Z</time>
      </trkpt>
      <trkpt lat="42.40489" lon="0.05669">
        <ele>792.7</ele>
        <time>2016-07-24T10:15:33Z</time>
      </trkpt>
      <trkpt lat="42.40491" lon="0.05673">
        <ele>793</ele>
        <time>2016-07-24T10:15:35Z</time>
      </trkpt>
      <trkpt lat="42.40493" lon="0.05678">
        <ele>793.4</ele>
        <time>2016-07-24T10:15:37Z</time>
      </trkpt>
      <trkpt lat="42.40496" lon="0.05684">
        <ele>793.7</ele>
        <time>2016-07-24T10:15:39Z</time>
      </trkpt>
      <trkpt lat="42.40498" lon="0.05688">
        <ele>794</ele>
        <time>2016-07-24T10:15:40Z</time>
      </trkpt>
      <trkpt lat="42.40501" lon="0.05694">
        <ele>794.5</ele>
        <time>2016-07-24T10:15:41Z</time>
      </trkpt>
      <trkpt lat="42.40503" lon="0.05699">
        <ele>795</ele>
        <time>2016-07-24T10:15:42Z</time>
      </trkpt>
      <trkpt lat="42.40506" lon="0.05704">
        <ele>795.6</ele>
        <time>2016-07-24T10:15:43Z</time>
      </trkpt>
      <trkpt lat="42.40508" lon="0.05709">
        <ele>796.1</ele>
        <time>2016-07-24T10:15:44Z</time>
      </trkpt>
      <trkpt lat="42.40509" lon="0.05714">
        <ele>796.5</ele>
        <time>2016-07-24T10:15:45Z</time>
      </trkpt>
      <trkpt lat="42.40511" lon="0.05719">
        <ele>796.8</ele>
        <time>2016-07-24T10:15:46Z</time>
      </trkpt>
      <trkpt lat="42.40513" lon="0.05723">
        <ele>797.1</ele>
        <time>2016-07-24T10:15:47Z</time>
      </trkpt>
      <trkpt lat="42.40515" lon="0.05726">
        <ele>797.3</ele>
        <time>2016-07-24T10:15:48Z</time>
      </trkpt>
      <trkpt lat="42.40519" lon="0.05727">
        <ele>797.2</ele>
        <time>2016-07-24T10:15:50Z</time>
      </trkpt>
      <trkpt lat="42.40522" lon="0.05729">
        <ele>797.2</ele>
        <time>2016-07-24T10:16:09Z</time>
      </trkpt>
      <trkpt lat="42.40524" lon="0.05729">
        <ele>797.1</ele>
        <time>2016-07-24T10:16:13Z</time>
      </trkpt>
      <trkpt lat="42.40527" lon="0.05731">
        <ele>797.2</ele>
        <time>2016-07-24T10:16:17Z</time>
      </trkpt>
      <trkpt lat="42.40528" lon="0.05735">
        <ele>797.5</ele>
        <time>2016-07-24T10:16:21Z</time>
      </trkpt>
      <trkpt lat="42.40529" lon="0.05739">
        <ele>797.9</ele>
        <time>2016-07-24T10:16:25Z</time>
      </trkpt>
      <trkpt lat="42.40531" lon="0.05741">
        <ele>798</ele>
        <time>2016-07-24T10:16:29Z</time>
      </trkpt>
      <trkpt lat="42.40534" lon="0.05742">
        <ele>798</ele>
        <time>2016-07-24T10:16:33Z</time>
      </trkpt>
      <trkpt lat="42.40537" lon="0.05745">
        <ele>798.2</ele>
        <time>2016-07-24T10:16:37Z</time>
      </trkpt>
      <trkpt lat="42.4054" lon="0.05748">
        <ele>798.3</ele>
        <time>2016-07-24T10:16:41Z</time>
      </trkpt>
      <trkpt lat="42.40543" lon="0.05748">
        <ele>798.5</ele>
        <time>2016-07-24T10:16:49Z</time>
      </trkpt>
      <trkpt lat="42.40546" lon="0.05748">
        <ele>799</ele>
        <time>2016-07-24T10:16:51Z</time>
      </trkpt>
      <trkpt lat="42.40549" lon="0.0575">
        <ele>799.6</ele>
        <time>2016-07-24T10:16:54Z</time>
      </trkpt>
      <trkpt lat="42.40552" lon="0.05751">
        <ele>800.1</ele>
        <time>2016-07-24T10:16:56Z</time>
      </trkpt>
      <trkpt lat="42.40555" lon="0.05753">
        <ele>800.8</ele>
        <time>2016-07-24T10:16:58Z</time>
      </trkpt>
      <trkpt lat="42.40558" lon="0.05756">
        <ele>801.6</ele>
        <time>2016-07-24T10:17:00Z</time>
      </trkpt>
      <trkpt lat="42.40562" lon="0.05759">
        <ele>802.3</ele>
        <time>2016-07-24T10:17:02Z</time>
      </trkpt>
      <trkpt lat="42.40566" lon="0.05762">
        <ele>803.1</ele>
        <time>2016-07-24T10:17:04Z</time>
      </trkpt>
      <trkpt lat="42.4057" lon="0.05766">
        <ele>803.9</ele>
        <time>2016-07-24T10:17:06Z</time>
      </trkpt>
      <trkpt lat="42.40574" lon="0.0577">
        <ele>804.7</ele>
        <time>2016-07-24T10:17:08Z</time>
      </trkpt>
      <trkpt lat="42.40578" lon="0.05774">
        <ele>805.5</ele>
        <time>2016-07-24T10:17:10Z</time>
      </trkpt>
      <trkpt lat="42.40582" lon="0.05778">
        <ele>806.2</ele>
        <time>2016-07-24T10:17:12Z</time>
      </trkpt>
      <trkpt lat="42.40584" lon="0.0578">
        <ele>806.6</ele>
        <time>2016-07-24T10:17:13Z</time>
      </trkpt>
      <trkpt lat="42.40586" lon="0.05784">
        <ele>806.9</ele>
        <time>2016-07-24T10:17:14Z</time>
      </trkpt>
      <trkpt lat="42.40588" lon="0.05787">
        <ele>807.2</ele>
        <time>2016-07-24T10:17:15Z</time>
      </trkpt>
      <trkpt lat="42.40589" lon="0.0579">
        <ele>807.5</ele>
        <time>2016-07-24T10:17:16Z</time>
      </trkpt>
      <trkpt lat="42.40591" lon="0.05795">
        <ele>807.8</ele>
        <time>2016-07-24T10:17:18Z</time>
      </trkpt>
      <trkpt lat="42.40593" lon="0.05799">
        <ele>808</ele>
        <time>2016-07-24T10:17:20Z</time>
      </trkpt>
      <trkpt lat="42.40595" lon="0.05806">
        <ele>808.2</ele>
        <time>2016-07-24T10:17:22Z</time>
      </trkpt>
      <trkpt lat="42.40596" lon="0.0581">
        <ele>808.2</ele>
        <time>2016-07-24T10:17:23Z</time>
      </trkpt>
      <trkpt lat="42.40598" lon="0.05815">
        <ele>808.4</ele>
        <time>2016-07-24T10:17:24Z</time>
      </trkpt>
      <trkpt lat="42.406" lon="0.05819">
        <ele>808.5</ele>
        <time>2016-07-24T10:17:25Z</time>
      </trkpt>
      <trkpt lat="42.40602" lon="0.05824">
        <ele>808.5</ele>
        <time>2016-07-24T10:17:26Z</time>
      </trkpt>
      <trkpt lat="42.40604" lon="0.05829">
        <ele>808.6</ele>
        <time>2016-07-24T10:17:27Z</time>
      </trkpt>
      <trkpt lat="42.40606" lon="0.05833">
        <ele>808.6</ele>
        <time>2016-07-24T10:17:28Z</time>
      </trkpt>
      <trkpt lat="42.40608" lon="0.05836">
        <ele>808.5</ele>
        <time>2016-07-24T10:17:29Z</time>
      </trkpt>
      <trkpt lat="42.40609" lon="0.0584">
        <ele>808.5</ele>
        <time>2016-07-24T10:17:30Z</time>
      </trkpt>
      <trkpt lat="42.40611" lon="0.05843">
        <ele>808.4</ele>
        <time>2016-07-24T10:17:31Z</time>
      </trkpt>
      <trkpt lat="42.40613" lon="0.05847">
        <ele>808.4</ele>
        <time>2016-07-24T10:17:32Z</time>
      </trkpt>
      <trkpt lat="42.40615" lon="0.0585">
        <ele>808.2</ele>
        <time>2016-07-24T10:17:33Z</time>
      </trkpt>
      <trkpt lat="42.40618" lon="0.05854">
        <ele>808.1</ele>
        <time>2016-07-24T10:17:34Z</time>
      </trkpt>
      <trkpt lat="42.40621" lon="0.05858">
        <ele>807.9</ele>
        <time>2016-07-24T10:17:35Z</time>
      </trkpt>
      <trkpt lat="42.40624" lon="0.05862">
        <ele>807.6</ele>
        <time>2016-07-24T10:17:36Z</time>
      </trkpt>
      <trkpt lat="42.40627" lon="0.05865">
        <ele>807.3</ele>
        <time>2016-07-24T10:17:37Z</time>
      </trkpt>
      <trkpt lat="42.40629" lon="0.05867">
        <ele>807</ele>
        <time>2016-07-24T10:17:38Z</time>
      </trkpt>
      <trkpt lat="42.40633" lon="0.05872">
        <ele>806.4</ele>
        <time>2016-07-24T10:17:40Z</time>
      </trkpt>
      <trkpt lat="42.40636" lon="0.05878">
        <ele>806.4</ele>
        <time>2016-07-24T10:17:42Z</time>
      </trkpt>
      <trkpt lat="42.40638" lon="0.05882">
        <ele>806.8</ele>
        <time>2016-07-24T10:17:43Z</time>
      </trkpt>
      <trkpt lat="42.40641" lon="0.05887">
        <ele>807.1</ele>
        <time>2016-07-24T10:17:45Z</time>
      </trkpt>
      <trkpt lat="42.40645" lon="0.05888">
        <ele>806.9</ele>
        <time>2016-07-24T10:17:47Z</time>
      </trkpt>
      <trkpt lat="42.40649" lon="0.05891">
        <ele>806.9</ele>
        <time>2016-07-24T10:17:49Z</time>
      </trkpt>
      <trkpt lat="42.40651" lon="0.05893">
        <ele>807</ele>
        <time>2016-07-24T10:18:00Z</time>
      </trkpt>
      <trkpt lat="42.4065" lon="0.05897">
        <ele>807.6</ele>
        <time>2016-07-24T10:18:06Z</time>
      </trkpt>
      <trkpt lat="42.40652" lon="0.059">
        <ele>807.9</ele>
        <time>2016-07-24T10:18:11Z</time>
      </trkpt>
      <trkpt lat="42.40652" lon="0.05904">
        <ele>808.4</ele>
        <time>2016-07-24T10:18:20Z</time>
      </trkpt>
      <trkpt lat="42.40654" lon="0.05908">
        <ele>808.7</ele>
        <time>2016-07-24T10:18:23Z</time>
      </trkpt>
      <trkpt lat="42.40655" lon="0.05912">
        <ele>809.1</ele>
        <time>2016-07-24T10:18:25Z</time>
      </trkpt>
      <trkpt lat="42.40656" lon="0.05916">
        <ele>809.5</ele>
        <time>2016-07-24T10:18:27Z</time>
      </trkpt>
      <trkpt lat="42.40657" lon="0.0592">
        <ele>809.9</ele>
        <time>2016-07-24T10:18:29Z</time>
      </trkpt>
      <trkpt lat="42.40659" lon="0.05924">
        <ele>810.2</ele>
        <time>2016-07-24T10:18:31Z</time>
      </trkpt>
      <trkpt lat="42.40661" lon="0.05927">
        <ele>810.3</ele>
        <time>2016-07-24T10:18:34Z</time>
      </trkpt>
      <trkpt lat="42.40664" lon="0.05928">
        <ele>810.1</ele>
        <time>2016-07-24T10:18:36Z</time>
      </trkpt>
      <trkpt lat="42.40667" lon="0.05929">
        <ele>809.7</ele>
        <time>2016-07-24T10:18:38Z</time>
      </trkpt>
      <trkpt lat="42.40671" lon="0.05932">
        <ele>809.6</ele>
        <time>2016-07-24T10:18:40Z</time>
      </trkpt>
      <trkpt lat="42.40673" lon="0.05935">
        <ele>809.6</ele>
        <time>2016-07-24T10:18:42Z</time>
      </trkpt>
      <trkpt lat="42.40676" lon="0.05939">
        <ele>809.7</ele>
        <time>2016-07-24T10:18:44Z</time>
      </trkpt>
      <trkpt lat="42.40679" lon="0.05943">
        <ele>809.8</ele>
        <time>2016-07-24T10:18:46Z</time>
      </trkpt>
      <trkpt lat="42.40681" lon="0.05946">
        <ele>809.9</ele>
        <time>2016-07-24T10:18:48Z</time>
      </trkpt>
      <trkpt lat="42.40684" lon="0.05948">
        <ele>809.6</ele>
        <time>2016-07-24T10:18:51Z</time>
      </trkpt>
      <trkpt lat="42.40687" lon="0.05951">
        <ele>809.6</ele>
        <time>2016-07-24T10:18:53Z</time>
      </trkpt>
      <trkpt lat="42.40688" lon="0.05955">
        <ele>809.8</ele>
        <time>2016-07-24T10:18:55Z</time>
      </trkpt>
      <trkpt lat="42.40689" lon="0.0596">
        <ele>810.4</ele>
        <time>2016-07-24T10:18:57Z</time>
      </trkpt>
      <trkpt lat="42.4069" lon="0.05966">
        <ele>811.7</ele>
        <time>2016-07-24T10:18:59Z</time>
      </trkpt>
      <trkpt lat="42.40693" lon="0.05971">
        <ele>812.4</ele>
        <time>2016-07-24T10:19:01Z</time>
      </trkpt>
      <trkpt lat="42.40696" lon="0.05974">
        <ele>812.6</ele>
        <time>2016-07-24T10:19:03Z</time>
      </trkpt>
      <trkpt lat="42.407" lon="0.05976">
        <ele>812.3</ele>
        <time>2016-07-24T10:19:05Z</time>
      </trkpt>
      <trkpt lat="42.40703" lon="0.05977">
        <ele>812.1</ele>
        <time>2016-07-24T10:19:07Z</time>
      </trkpt>
      <trkpt lat="42.40706" lon="0.05981">
        <ele>812.6</ele>
        <time>2016-07-24T10:19:09Z</time>
      </trkpt>
      <trkpt lat="42.40707" lon="0.05985">
        <ele>813.3</ele>
        <time>2016-07-24T10:19:11Z</time>
      </trkpt>
      <trkpt lat="42.40709" lon="0.0599">
        <ele>814.1</ele>
        <time>2016-07-24T10:19:13Z</time>
      </trkpt>
      <trkpt lat="42.4071" lon="0.05994">
        <ele>814.6</ele>
        <time>2016-07-24T10:19:15Z</time>
      </trkpt>
      <trkpt lat="42.40712" lon="0.05998">
        <ele>815.1</ele>
        <time>2016-07-24T10:19:17Z</time>
      </trkpt>
      <trkpt lat="42.40713" lon="0.06002">
        <ele>815.9</ele>
        <time>2016-07-24T10:19:19Z</time>
      </trkpt>
      <trkpt lat="42.40713" lon="0.06007">
        <ele>816.7</ele>
        <time>2016-07-24T10:19:21Z</time>
      </trkpt>
      <trkpt lat="42.40714" lon="0.0601">
        <ele>817.3</ele>
        <time>2016-07-24T10:19:23Z</time>
      </trkpt>
      <trkpt lat="42.40715" lon="0.06015">
        <ele>818.1</ele>
        <time>2016-07-24T10:19:26Z</time>
      </trkpt>
      <trkpt lat="42.40714" lon="0.0602">
        <ele>819.4</ele>
        <time>2016-07-24T10:19:28Z</time>
      </trkpt>
      <trkpt lat="42.40715" lon="0.06025">
        <ele>820.4</ele>
        <time>2016-07-24T10:19:30Z</time>
      </trkpt>
      <trkpt lat="42.40716" lon="0.06029">
        <ele>821</ele>
        <time>2016-07-24T10:19:32Z</time>
      </trkpt>
      <trkpt lat="42.40718" lon="0.06033">
        <ele>821.2</ele>
        <time>2016-07-24T10:19:34Z</time>
      </trkpt>
      <trkpt lat="42.40719" lon="0.06036">
        <ele>821.3</ele>
        <time>2016-07-24T10:19:36Z</time>
      </trkpt>
      <trkpt lat="42.4072" lon="0.0604">
        <ele>821.8</ele>
        <time>2016-07-24T10:19:38Z</time>
      </trkpt>
      <trkpt lat="42.40722" lon="0.06045">
        <ele>822.2</ele>
        <time>2016-07-24T10:19:40Z</time>
      </trkpt>
      <trkpt lat="42.40723" lon="0.0605">
        <ele>822.5</ele>
        <time>2016-07-24T10:19:42Z</time>
      </trkpt>
      <trkpt lat="42.40723" lon="0.06055">
        <ele>823</ele>
        <time>2016-07-24T10:19:44Z</time>
      </trkpt>
      <trkpt lat="42.40723" lon="0.06059">
        <ele>823.6</ele>
        <time>2016-07-24T10:19:46Z</time>
      </trkpt>
      <trkpt lat="42.40722" lon="0.06063">
        <ele>824.1</ele>
        <time>2016-07-24T10:19:48Z</time>
      </trkpt>
      <trkpt lat="42.40721" lon="0.06068">
        <ele>825.2</ele>
        <time>2016-07-24T10:19:51Z</time>
      </trkpt>
      <trkpt lat="42.40718" lon="0.06071">
        <ele>826.2</ele>
        <time>2016-07-24T10:19:53Z</time>
      </trkpt>
      <trkpt lat="42.40717" lon="0.06074">
        <ele>827</ele>
        <time>2016-07-24T10:19:55Z</time>
      </trkpt>
      <trkpt lat="42.40715" lon="0.06078">
        <ele>828.1</ele>
        <time>2016-07-24T10:19:58Z</time>
      </trkpt>
      <trkpt lat="42.40713" lon="0.06082">
        <ele>829</ele>
        <time>2016-07-24T10:20:00Z</time>
      </trkpt>
      <trkpt lat="42.40711" lon="0.06086">
        <ele>829.9</ele>
        <time>2016-07-24T10:20:02Z</time>
      </trkpt>
      <trkpt lat="42.40709" lon="0.0609">
        <ele>831</ele>
        <time>2016-07-24T10:20:05Z</time>
      </trkpt>
      <trkpt lat="42.40708" lon="0.06094">
        <ele>831.9</ele>
        <time>2016-07-24T10:20:07Z</time>
      </trkpt>
      <trkpt lat="42.40706" lon="0.06097">
        <ele>832.6</ele>
        <time>2016-07-24T10:20:09Z</time>
      </trkpt>
      <trkpt lat="42.40703" lon="0.06099">
        <ele>833.5</ele>
        <time>2016-07-24T10:20:11Z</time>
      </trkpt>
      <trkpt lat="42.407" lon="0.06102">
        <ele>834.5</ele>
        <time>2016-07-24T10:20:13Z</time>
      </trkpt>
      <trkpt lat="42.40698" lon="0.06106">
        <ele>835.6</ele>
        <time>2016-07-24T10:20:15Z</time>
      </trkpt>
      <trkpt lat="42.40694" lon="0.06111">
        <ele>837.1</ele>
        <time>2016-07-24T10:20:17Z</time>
      </trkpt>
      <trkpt lat="42.4069" lon="0.06116">
        <ele>838.5</ele>
        <time>2016-07-24T10:20:19Z</time>
      </trkpt>
      <trkpt lat="42.40687" lon="0.06119">
        <ele>839.8</ele>
        <time>2016-07-24T10:20:21Z</time>
      </trkpt>
      <trkpt lat="42.40683" lon="0.06121">
        <ele>840.8</ele>
        <time>2016-07-24T10:20:23Z</time>
      </trkpt>
      <trkpt lat="42.4068" lon="0.06123">
        <ele>841.8</ele>
        <time>2016-07-24T10:20:25Z</time>
      </trkpt>
      <trkpt lat="42.40679" lon="0.06126">
        <ele>842.5</ele>
        <time>2016-07-24T10:20:28Z</time>
      </trkpt>
      <trkpt lat="42.40681" lon="0.0613">
        <ele>842.2</ele>
        <time>2016-07-24T10:20:32Z</time>
      </trkpt>
      <trkpt lat="42.40683" lon="0.06133">
        <ele>841.7</ele>
        <time>2016-07-24T10:20:35Z</time>
      </trkpt>
      <trkpt lat="42.40686" lon="0.06135">
        <ele>841.1</ele>
        <time>2016-07-24T10:20:40Z</time>
      </trkpt>
      <trkpt lat="42.40687" lon="0.06139">
        <ele>840.8</ele>
        <time>2016-07-24T10:20:43Z</time>
      </trkpt>
      <trkpt lat="42.40688" lon="0.06144">
        <ele>840.7</ele>
        <time>2016-07-24T10:20:46Z</time>
      </trkpt>
      <trkpt lat="42.40688" lon="0.06148">
        <ele>840.9</ele>
        <time>2016-07-24T10:20:48Z</time>
      </trkpt>
      <trkpt lat="42.40687" lon="0.06151">
        <ele>841.4</ele>
        <time>2016-07-24T10:20:50Z</time>
      </trkpt>
      <trkpt lat="42.40685" lon="0.06155">
        <ele>842</ele>
        <time>2016-07-24T10:20:52Z</time>
      </trkpt>
      <trkpt lat="42.40685" lon="0.06159">
        <ele>842.3</ele>
        <time>2016-07-24T10:20:54Z</time>
      </trkpt>
      <trkpt lat="42.40685" lon="0.06162">
        <ele>842.2</ele>
        <time>2016-07-24T10:20:56Z</time>
      </trkpt>
      <trkpt lat="42.40688" lon="0.06167">
        <ele>841.6</ele>
        <time>2016-07-24T10:20:59Z</time>
      </trkpt>
      <trkpt lat="42.40689" lon="0.06171">
        <ele>841.4</ele>
        <time>2016-07-24T10:21:01Z</time>
      </trkpt>
      <trkpt lat="42.40689" lon="0.06174">
        <ele>841.4</ele>
        <time>2016-07-24T10:21:03Z</time>
      </trkpt>
      <trkpt lat="42.40689" lon="0.06178">
        <ele>841.8</ele>
        <time>2016-07-24T10:21:05Z</time>
      </trkpt>
      <trkpt lat="42.40689" lon="0.06183">
        <ele>841.7</ele>
        <time>2016-07-24T10:21:08Z</time>
      </trkpt>
      <trkpt lat="42.40692" lon="0.06185">
        <ele>841.1</ele>
        <time>2016-07-24T10:21:10Z</time>
      </trkpt>
      <trkpt lat="42.40694" lon="0.0619">
        <ele>840.3</ele>
        <time>2016-07-24T10:21:13Z</time>
      </trkpt>
      <trkpt lat="42.40697" lon="0.06193">
        <ele>839.6</ele>
        <time>2016-07-24T10:21:15Z</time>
      </trkpt>
      <trkpt lat="42.407" lon="0.06194">
        <ele>838.6</ele>
        <time>2016-07-24T10:21:17Z</time>
      </trkpt>
      <trkpt lat="42.40703" lon="0.06194">
        <ele>837.5</ele>
        <time>2016-07-24T10:21:19Z</time>
      </trkpt>
      <trkpt lat="42.40707" lon="0.06193">
        <ele>836.4</ele>
        <time>2016-07-24T10:21:21Z</time>
      </trkpt>
      <trkpt lat="42.40711" lon="0.06193">
        <ele>835.6</ele>
        <time>2016-07-24T10:21:23Z</time>
      </trkpt>
      <trkpt lat="42.40715" lon="0.06193">
        <ele>835.2</ele>
        <time>2016-07-24T10:21:25Z</time>
      </trkpt>
      <trkpt lat="42.40719" lon="0.06194">
        <ele>835</ele>
        <time>2016-07-24T10:21:27Z</time>
      </trkpt>
      <trkpt lat="42.40721" lon="0.06196">
        <ele>834.9</ele>
        <time>2016-07-24T10:21:29Z</time>
      </trkpt>
      <trkpt lat="42.40723" lon="0.062">
        <ele>834.8</ele>
        <time>2016-07-24T10:21:32Z</time>
      </trkpt>
      <trkpt lat="42.40726" lon="0.06202">
        <ele>834.8</ele>
        <time>2016-07-24T10:21:41Z</time>
      </trkpt>
      <trkpt lat="42.40728" lon="0.06205">
        <ele>834.9</ele>
        <time>2016-07-24T10:21:50Z</time>
      </trkpt>
      <trkpt lat="42.40731" lon="0.06207">
        <ele>834.8</ele>
        <time>2016-07-24T10:21:55Z</time>
      </trkpt>
      <trkpt lat="42.40734" lon="0.06208">
        <ele>834.7</ele>
        <time>2016-07-24T10:21:59Z</time>
      </trkpt>
      <trkpt lat="42.40735" lon="0.06211">
        <ele>835.1</ele>
        <time>2016-07-24T10:22:03Z</time>
      </trkpt>
      <trkpt lat="42.40736" lon="0.06215">
        <ele>835.8</ele>
        <time>2016-07-24T10:22:07Z</time>
      </trkpt>
      <trkpt lat="42.40737" lon="0.06219">
        <ele>836.5</ele>
        <time>2016-07-24T10:22:12Z</time>
      </trkpt>
      <trkpt lat="42.40738" lon="0.06223">
        <ele>837.1</ele>
        <time>2016-07-24T10:22:16Z</time>
      </trkpt>
      <trkpt lat="42.40739" lon="0.06226">
        <ele>837.6</ele>
        <time>2016-07-24T10:22:19Z</time>
      </trkpt>
      <trkpt lat="42.4074" lon="0.06231">
        <ele>838.3</ele>
        <time>2016-07-24T10:22:23Z</time>
      </trkpt>
      <trkpt lat="42.40742" lon="0.06235">
        <ele>839</ele>
        <time>2016-07-24T10:22:27Z</time>
      </trkpt>
      <trkpt lat="42.40743" lon="0.06239">
        <ele>839.7</ele>
        <time>2016-07-24T10:22:31Z</time>
      </trkpt>
      <trkpt lat="42.40744" lon="0.06243">
        <ele>840.2</ele>
        <time>2016-07-24T10:22:36Z</time>
      </trkpt>
      <trkpt lat="42.40746" lon="0.06246">
        <ele>840.6</ele>
        <time>2016-07-24T10:22:41Z</time>
      </trkpt>
      <trkpt lat="42.40748" lon="0.0625">
        <ele>841.1</ele>
        <time>2016-07-24T10:22:45Z</time>
      </trkpt>
      <trkpt lat="42.40749" lon="0.06254">
        <ele>841.7</ele>
        <time>2016-07-24T10:22:49Z</time>
      </trkpt>
      <trkpt lat="42.4075" lon="0.06258">
        <ele>842.3</ele>
        <time>2016-07-24T10:22:58Z</time>
      </trkpt>
      <trkpt lat="42.40752" lon="0.06262">
        <ele>842.9</ele>
        <time>2016-07-24T10:23:01Z</time>
      </trkpt>
      <trkpt lat="42.40753" lon="0.06267">
        <ele>843.6</ele>
        <time>2016-07-24T10:23:03Z</time>
      </trkpt>
      <trkpt lat="42.40754" lon="0.06271">
        <ele>844.1</ele>
        <time>2016-07-24T10:23:05Z</time>
      </trkpt>
      <trkpt lat="42.40756" lon="0.06274">
        <ele>844.5</ele>
        <time>2016-07-24T10:23:07Z</time>
      </trkpt>
      <trkpt lat="42.40758" lon="0.06278">
        <ele>845</ele>
        <time>2016-07-24T10:23:09Z</time>
      </trkpt>
      <trkpt lat="42.4076" lon="0.06281">
        <ele>845.3</ele>
        <time>2016-07-24T10:23:11Z</time>
      </trkpt>
      <trkpt lat="42.40763" lon="0.06286">
        <ele>845.8</ele>
        <time>2016-07-24T10:23:13Z</time>
      </trkpt>
      <trkpt lat="42.40765" lon="0.0629">
        <ele>846.3</ele>
        <time>2016-07-24T10:23:15Z</time>
      </trkpt>
      <trkpt lat="42.40767" lon="0.06294">
        <ele>846.8</ele>
        <time>2016-07-24T10:23:17Z</time>
      </trkpt>
      <trkpt lat="42.40769" lon="0.06298">
        <ele>847.4</ele>
        <time>2016-07-24T10:23:19Z</time>
      </trkpt>
      <trkpt lat="42.40771" lon="0.06302">
        <ele>847.9</ele>
        <time>2016-07-24T10:23:21Z</time>
      </trkpt>
      <trkpt lat="42.40773" lon="0.06306">
        <ele>848.4</ele>
        <time>2016-07-24T10:23:23Z</time>
      </trkpt>
      <trkpt lat="42.40774" lon="0.06311">
        <ele>849.1</ele>
        <time>2016-07-24T10:23:25Z</time>
      </trkpt>
      <trkpt lat="42.40776" lon="0.06316">
        <ele>849.7</ele>
        <time>2016-07-24T10:23:27Z</time>
      </trkpt>
      <trkpt lat="42.40778" lon="0.06321">
        <ele>850.3</ele>
        <time>2016-07-24T10:23:29Z</time>
      </trkpt>
      <trkpt lat="42.40778" lon="0.06325">
        <ele>850.9</ele>
        <time>2016-07-24T10:23:32Z</time>
      </trkpt>
      <trkpt lat="42.40778" lon="0.06332">
        <ele>852.1</ele>
        <time>2016-07-24T10:23:51Z</time>
      </trkpt>
      <trkpt lat="42.40778" lon="0.06336">
        <ele>852.8</ele>
        <time>2016-07-24T10:23:52Z</time>
      </trkpt>
      <trkpt lat="42.40778" lon="0.0634">
        <ele>853.3</ele>
        <time>2016-07-24T10:23:53Z</time>
      </trkpt>
      <trkpt lat="42.40779" lon="0.06344">
        <ele>853.9</ele>
        <time>2016-07-24T10:23:54Z</time>
      </trkpt>
      <trkpt lat="42.4078" lon="0.06349">
        <ele>854.4</ele>
        <time>2016-07-24T10:23:55Z</time>
      </trkpt>
      <trkpt lat="42.40782" lon="0.06354">
        <ele>854.9</ele>
        <time>2016-07-24T10:23:56Z</time>
      </trkpt>
      <trkpt lat="42.40782" lon="0.06359">
        <ele>855.4</ele>
        <time>2016-07-24T10:23:57Z</time>
      </trkpt>
      <trkpt lat="42.40783" lon="0.06364">
        <ele>856.1</ele>
        <time>2016-07-24T10:23:58Z</time>
      </trkpt>
      <trkpt lat="42.40784" lon="0.0637">
        <ele>856.7</ele>
        <time>2016-07-24T10:23:59Z</time>
      </trkpt>
      <trkpt lat="42.40784" lon="0.06376">
        <ele>857.5</ele>
        <time>2016-07-24T10:24:00Z</time>
      </trkpt>
      <trkpt lat="42.40784" lon="0.06382">
        <ele>858</ele>
        <time>2016-07-24T10:24:01Z</time>
      </trkpt>
      <trkpt lat="42.40784" lon="0.06388">
        <ele>858.8</ele>
        <time>2016-07-24T10:24:02Z</time>
      </trkpt>
      <trkpt lat="42.40783" lon="0.06394">
        <ele>859.7</ele>
        <time>2016-07-24T10:24:03Z</time>
      </trkpt>
      <trkpt lat="42.40782" lon="0.06399">
        <ele>860.7</ele>
        <time>2016-07-24T10:24:04Z</time>
      </trkpt>
      <trkpt lat="42.40781" lon="0.06404">
        <ele>861.6</ele>
        <time>2016-07-24T10:24:05Z</time>
      </trkpt>
      <trkpt lat="42.4078" lon="0.06408">
        <ele>862.4</ele>
        <time>2016-07-24T10:24:06Z</time>
      </trkpt>
      <trkpt lat="42.40779" lon="0.06412">
        <ele>863.1</ele>
        <time>2016-07-24T10:24:07Z</time>
      </trkpt>
      <trkpt lat="42.40779" lon="0.06416">
        <ele>863.6</ele>
        <time>2016-07-24T10:24:08Z</time>
      </trkpt>
      <trkpt lat="42.40779" lon="0.06423">
        <ele>864.4</ele>
        <time>2016-07-24T10:24:10Z</time>
      </trkpt>
      <trkpt lat="42.4078" lon="0.06427">
        <ele>864.5</ele>
        <time>2016-07-24T10:24:12Z</time>
      </trkpt>
      <trkpt lat="42.40782" lon="0.06431">
        <ele>864.2</ele>
        <time>2016-07-24T10:24:14Z</time>
      </trkpt>
      <trkpt lat="42.40785" lon="0.06437">
        <ele>863.8</ele>
        <time>2016-07-24T10:24:16Z</time>
      </trkpt>
      <trkpt lat="42.40787" lon="0.0644">
        <ele>863.7</ele>
        <time>2016-07-24T10:24:17Z</time>
      </trkpt>
      <trkpt lat="42.40788" lon="0.06443">
        <ele>863.5</ele>
        <time>2016-07-24T10:24:18Z</time>
      </trkpt>
      <trkpt lat="42.4079" lon="0.06447">
        <ele>863.4</ele>
        <time>2016-07-24T10:24:19Z</time>
      </trkpt>
      <trkpt lat="42.40791" lon="0.0645">
        <ele>863.3</ele>
        <time>2016-07-24T10:24:20Z</time>
      </trkpt>
      <trkpt lat="42.40793" lon="0.06454">
        <ele>862.8</ele>
        <time>2016-07-24T10:24:21Z</time>
      </trkpt>
      <trkpt lat="42.40796" lon="0.06458">
        <ele>862.2</ele>
        <time>2016-07-24T10:24:22Z</time>
      </trkpt>
      <trkpt lat="42.40798" lon="0.06462">
        <ele>861.4</ele>
        <time>2016-07-24T10:24:23Z</time>
      </trkpt>
      <trkpt lat="42.40799" lon="0.06467">
        <ele>860.9</ele>
        <time>2016-07-24T10:24:24Z</time>
      </trkpt>
      <trkpt lat="42.408" lon="0.06471">
        <ele>860.6</ele>
        <time>2016-07-24T10:24:25Z</time>
      </trkpt>
      <trkpt lat="42.40801" lon="0.06475">
        <ele>860.5</ele>
        <time>2016-07-24T10:24:26Z</time>
      </trkpt>
      <trkpt lat="42.40802" lon="0.06479">
        <ele>860.3</ele>
        <time>2016-07-24T10:24:27Z</time>
      </trkpt>
      <trkpt lat="42.40803" lon="0.06484">
        <ele>860.1</ele>
        <time>2016-07-24T10:24:28Z</time>
      </trkpt>
      <trkpt lat="42.40804" lon="0.06489">
        <ele>860</ele>
        <time>2016-07-24T10:24:29Z</time>
      </trkpt>
      <trkpt lat="42.40805" lon="0.06496">
        <ele>859.8</ele>
        <time>2016-07-24T10:24:30Z</time>
      </trkpt>
      <trkpt lat="42.40806" lon="0.06502">
        <ele>859.6</ele>
        <time>2016-07-24T10:24:31Z</time>
      </trkpt>
      <trkpt lat="42.40806" lon="0.06508">
        <ele>859.6</ele>
        <time>2016-07-24T10:24:32Z</time>
      </trkpt>
      <trkpt lat="42.40807" lon="0.06514">
        <ele>859.5</ele>
        <time>2016-07-24T10:24:33Z</time>
      </trkpt>
      <trkpt lat="42.40807" lon="0.0652">
        <ele>859.6</ele>
        <time>2016-07-24T10:24:34Z</time>
      </trkpt>
      <trkpt lat="42.40807" lon="0.06525">
        <ele>860.3</ele>
        <time>2016-07-24T10:24:35Z</time>
      </trkpt>
      <trkpt lat="42.40805" lon="0.0653">
        <ele>861.3</ele>
        <time>2016-07-24T10:24:36Z</time>
      </trkpt>
      <trkpt lat="42.40803" lon="0.06535">
        <ele>862.4</ele>
        <time>2016-07-24T10:24:37Z</time>
      </trkpt>
      <trkpt lat="42.40802" lon="0.0654">
        <ele>863.3</ele>
        <time>2016-07-24T10:24:38Z</time>
      </trkpt>
      <trkpt lat="42.40801" lon="0.06545">
        <ele>863.3</ele>
        <time>2016-07-24T10:24:39Z</time>
      </trkpt>
      <trkpt lat="42.408" lon="0.06549">
        <ele>863</ele>
        <time>2016-07-24T10:24:40Z</time>
      </trkpt>
      <trkpt lat="42.408" lon="0.06552">
        <ele>862.9</ele>
        <time>2016-07-24T10:24:41Z</time>
      </trkpt>
      <trkpt lat="42.40798" lon="0.06556">
        <ele>863.1</ele>
        <time>2016-07-24T10:24:42Z</time>
      </trkpt>
      <trkpt lat="42.40796" lon="0.06559">
        <ele>863.5</ele>
        <time>2016-07-24T10:24:43Z</time>
      </trkpt>
      <trkpt lat="42.40794" lon="0.06563">
        <ele>863.9</ele>
        <time>2016-07-24T10:24:44Z</time>
      </trkpt>
      <trkpt lat="42.40792" lon="0.06567">
        <ele>864.4</ele>
        <time>2016-07-24T10:24:45Z</time>
      </trkpt>
      <trkpt lat="42.40789" lon="0.0657">
        <ele>864.9</ele>
        <time>2016-07-24T10:24:46Z</time>
      </trkpt>
      <trkpt lat="42.40786" lon="0.06573">
        <ele>865.5</ele>
        <time>2016-07-24T10:24:47Z</time>
      </trkpt>
      <trkpt lat="42.40782" lon="0.06576">
        <ele>866.2</ele>
        <time>2016-07-24T10:24:48Z</time>
      </trkpt>
      <trkpt lat="42.40778" lon="0.0658">
        <ele>866.8</ele>
        <time>2016-07-24T10:24:49Z</time>
      </trkpt>
      <trkpt lat="42.40775" lon="0.06585">
        <ele>867.2</ele>
        <time>2016-07-24T10:24:50Z</time>
      </trkpt>
      <trkpt lat="42.40772" lon="0.06589">
        <ele>867.6</ele>
        <time>2016-07-24T10:24:51Z</time>
      </trkpt>
      <trkpt lat="42.4077" lon="0.06594">
        <ele>867.8</ele>
        <time>2016-07-24T10:24:52Z</time>
      </trkpt>
      <trkpt lat="42.40768" lon="0.06599">
        <ele>867.8</ele>
        <time>2016-07-24T10:24:53Z</time>
      </trkpt>
      <trkpt lat="42.40767" lon="0.06602">
        <ele>867.9</ele>
        <time>2016-07-24T10:24:54Z</time>
      </trkpt>
      <trkpt lat="42.40765" lon="0.06608">
        <ele>867.9</ele>
        <time>2016-07-24T10:24:56Z</time>
      </trkpt>
      <trkpt lat="42.40764" lon="0.06614">
        <ele>867.3</ele>
        <time>2016-07-24T10:24:58Z</time>
      </trkpt>
      <trkpt lat="42.40767" lon="0.0662">
        <ele>865.5</ele>
        <time>2016-07-24T10:25:00Z</time>
      </trkpt>
      <trkpt lat="42.4077" lon="0.06623">
        <ele>864.1</ele>
        <time>2016-07-24T10:25:01Z</time>
      </trkpt>
      <trkpt lat="42.40773" lon="0.06626">
        <ele>862.7</ele>
        <time>2016-07-24T10:25:02Z</time>
      </trkpt>
      <trkpt lat="42.40776" lon="0.0663">
        <ele>861.4</ele>
        <time>2016-07-24T10:25:03Z</time>
      </trkpt>
      <trkpt lat="42.40777" lon="0.06633">
        <ele>860.5</ele>
        <time>2016-07-24T10:25:04Z</time>
      </trkpt>
      <trkpt lat="42.40779" lon="0.06637">
        <ele>859.6</ele>
        <time>2016-07-24T10:25:05Z</time>
      </trkpt>
      <trkpt lat="42.40781" lon="0.0664">
        <ele>858.7</ele>
        <time>2016-07-24T10:25:06Z</time>
      </trkpt>
      <trkpt lat="42.40782" lon="0.06643">
        <ele>857.7</ele>
        <time>2016-07-24T10:25:07Z</time>
      </trkpt>
      <trkpt lat="42.40784" lon="0.06647">
        <ele>856.7</ele>
        <time>2016-07-24T10:25:08Z</time>
      </trkpt>
      <trkpt lat="42.40786" lon="0.06652">
        <ele>855.7</ele>
        <time>2016-07-24T10:25:09Z</time>
      </trkpt>
      <trkpt lat="42.40786" lon="0.06657">
        <ele>855.1</ele>
        <time>2016-07-24T10:25:10Z</time>
      </trkpt>
      <trkpt lat="42.40786" lon="0.06662">
        <ele>854.8</ele>
        <time>2016-07-24T10:25:11Z</time>
      </trkpt>
      <trkpt lat="42.40785" lon="0.06667">
        <ele>854.6</ele>
        <time>2016-07-24T10:25:12Z</time>
      </trkpt>
      <trkpt lat="42.40784" lon="0.06672">
        <ele>854.3</ele>
        <time>2016-07-24T10:25:13Z</time>
      </trkpt>
      <trkpt lat="42.40784" lon="0.06678">
        <ele>853.8</ele>
        <time>2016-07-24T10:25:14Z</time>
      </trkpt>
      <trkpt lat="42.40784" lon="0.06684">
        <ele>853.2</ele>
        <time>2016-07-24T10:25:15Z</time>
      </trkpt>
      <trkpt lat="42.40784" lon="0.0669">
        <ele>852.6</ele>
        <time>2016-07-24T10:25:16Z</time>
      </trkpt>
      <trkpt lat="42.40784" lon="0.06696">
        <ele>852.2</ele>
        <time>2016-07-24T10:25:17Z</time>
      </trkpt>
      <trkpt lat="42.40783" lon="0.06701">
        <ele>852.2</ele>
        <time>2016-07-24T10:25:18Z</time>
      </trkpt>
      <trkpt lat="42.40781" lon="0.06706">
        <ele>852.4</ele>
        <time>2016-07-24T10:25:19Z</time>
      </trkpt>
      <trkpt lat="42.40779" lon="0.06711">
        <ele>853.1</ele>
        <time>2016-07-24T10:25:20Z</time>
      </trkpt>
      <trkpt lat="42.40777" lon="0.06717">
        <ele>853.9</ele>
        <time>2016-07-24T10:25:21Z</time>
      </trkpt>
      <trkpt lat="42.40775" lon="0.06724">
        <ele>854.5</ele>
        <time>2016-07-24T10:25:22Z</time>
      </trkpt>
      <trkpt lat="42.40773" lon="0.0673">
        <ele>855.2</ele>
        <time>2016-07-24T10:25:23Z</time>
      </trkpt>
      <trkpt lat="42.40772" lon="0.06735">
        <ele>855.7</ele>
        <time>2016-07-24T10:25:24Z</time>
      </trkpt>
      <trkpt lat="42.40771" lon="0.06739">
        <ele>856.1</ele>
        <time>2016-07-24T10:25:25Z</time>
      </trkpt>
      <trkpt lat="42.40772" lon="0.06746">
        <ele>855.7</ele>
        <time>2016-07-24T10:25:27Z</time>
      </trkpt>
      <trkpt lat="42.40773" lon="0.0675">
        <ele>855</ele>
        <time>2016-07-24T10:25:28Z</time>
      </trkpt>
      <trkpt lat="42.40775" lon="0.06754">
        <ele>854.2</ele>
        <time>2016-07-24T10:25:29Z</time>
      </trkpt>
      <trkpt lat="42.40778" lon="0.06758">
        <ele>852.9</ele>
        <time>2016-07-24T10:25:31Z</time>
      </trkpt>
      <trkpt lat="42.40781" lon="0.06764">
        <ele>851.5</ele>
        <time>2016-07-24T10:25:33Z</time>
      </trkpt>
      <trkpt lat="42.40784" lon="0.06768">
        <ele>850.4</ele>
        <time>2016-07-24T10:25:35Z</time>
      </trkpt>
      <trkpt lat="42.40785" lon="0.06774">
        <ele>850</ele>
        <time>2016-07-24T10:25:37Z</time>
      </trkpt>
      <trkpt lat="42.40785" lon="0.0678">
        <ele>849.7</ele>
        <time>2016-07-24T10:25:39Z</time>
      </trkpt>
      <trkpt lat="42.40786" lon="0.06784">
        <ele>849.2</ele>
        <time>2016-07-24T10:25:40Z</time>
      </trkpt>
      <trkpt lat="42.40788" lon="0.06787">
        <ele>848.4</ele>
        <time>2016-07-24T10:25:41Z</time>
      </trkpt>
      <trkpt lat="42.40792" lon="0.06792">
        <ele>847.1</ele>
        <time>2016-07-24T10:25:43Z</time>
      </trkpt>
      <trkpt lat="42.40795" lon="0.06797">
        <ele>846.3</ele>
        <time>2016-07-24T10:25:45Z</time>
      </trkpt>
      <trkpt lat="42.40798" lon="0.06801">
        <ele>845.8</ele>
        <time>2016-07-24T10:25:47Z</time>
      </trkpt>
      <trkpt lat="42.40801" lon="0.06806">
        <ele>845.3</ele>
        <time>2016-07-24T10:25:49Z</time>
      </trkpt>
      <trkpt lat="42.40804" lon="0.06812">
        <ele>845.2</ele>
        <time>2016-07-24T10:25:51Z</time>
      </trkpt>
      <trkpt lat="42.40805" lon="0.06815">
        <ele>845.4</ele>
        <time>2016-07-24T10:25:52Z</time>
      </trkpt>
      <trkpt lat="42.40806" lon="0.06818">
        <ele>845.2</ele>
        <time>2016-07-24T10:25:53Z</time>
      </trkpt>
      <trkpt lat="42.40809" lon="0.0682">
        <ele>844.6</ele>
        <time>2016-07-24T10:25:54Z</time>
      </trkpt>
      <trkpt lat="42.40811" lon="0.06821">
        <ele>843.8</ele>
        <time>2016-07-24T10:25:55Z</time>
      </trkpt>
      <trkpt lat="42.40814" lon="0.06821">
        <ele>842.8</ele>
        <time>2016-07-24T10:25:56Z</time>
      </trkpt>
      <trkpt lat="42.40817" lon="0.06821">
        <ele>841.8</ele>
        <time>2016-07-24T10:25:57Z</time>
      </trkpt>
      <trkpt lat="42.4082" lon="0.06821">
        <ele>840.9</ele>
        <time>2016-07-24T10:25:58Z</time>
      </trkpt>
      <trkpt lat="42.40825" lon="0.06821">
        <ele>839.1</ele>
        <time>2016-07-24T10:26:00Z</time>
      </trkpt>
      <trkpt lat="42.4083" lon="0.06822">
        <ele>837.4</ele>
        <time>2016-07-24T10:26:02Z</time>
      </trkpt>
      <trkpt lat="42.40835" lon="0.06824">
        <ele>836.1</ele>
        <time>2016-07-24T10:26:04Z</time>
      </trkpt>
      <trkpt lat="42.40838" lon="0.06825">
        <ele>835.3</ele>
        <time>2016-07-24T10:26:05Z</time>
      </trkpt>
      <trkpt lat="42.40842" lon="0.06827">
        <ele>834.3</ele>
        <time>2016-07-24T10:26:06Z</time>
      </trkpt>
      <trkpt lat="42.40846" lon="0.06828">
        <ele>833.2</ele>
        <time>2016-07-24T10:26:07Z</time>
      </trkpt>
      <trkpt lat="42.4085" lon="0.0683">
        <ele>832.3</ele>
        <time>2016-07-24T10:26:08Z</time>
      </trkpt>
      <trkpt lat="42.40853" lon="0.06832">
        <ele>831.6</ele>
        <time>2016-07-24T10:26:09Z</time>
      </trkpt>
      <trkpt lat="42.40857" lon="0.06836">
        <ele>831</ele>
        <time>2016-07-24T10:26:10Z</time>
      </trkpt>
      <trkpt lat="42.4086" lon="0.06839">
        <ele>830.5</ele>
        <time>2016-07-24T10:26:11Z</time>
      </trkpt>
      <trkpt lat="42.40864" lon="0.06843">
        <ele>830.1</ele>
        <time>2016-07-24T10:26:12Z</time>
      </trkpt>
      <trkpt lat="42.40867" lon="0.06847">
        <ele>830</ele>
        <time>2016-07-24T10:26:13Z</time>
      </trkpt>
      <trkpt lat="42.40869" lon="0.06851">
        <ele>830.2</ele>
        <time>2016-07-24T10:26:14Z</time>
      </trkpt>
      <trkpt lat="42.4087" lon="0.06856">
        <ele>830.7</ele>
        <time>2016-07-24T10:26:15Z</time>
      </trkpt>
      <trkpt lat="42.40871" lon="0.06861">
        <ele>831.4</ele>
        <time>2016-07-24T10:26:16Z</time>
      </trkpt>
      <trkpt lat="42.40872" lon="0.06866">
        <ele>831.9</ele>
        <time>2016-07-24T10:26:17Z</time>
      </trkpt>
      <trkpt lat="42.40874" lon="0.0687">
        <ele>832.3</ele>
        <time>2016-07-24T10:26:18Z</time>
      </trkpt>
      <trkpt lat="42.40877" lon="0.06875">
        <ele>832.5</ele>
        <time>2016-07-24T10:26:20Z</time>
      </trkpt>
      <trkpt lat="42.4088" lon="0.06878">
        <ele>832.4</ele>
        <time>2016-07-24T10:26:21Z</time>
      </trkpt>
      <trkpt lat="42.40882" lon="0.06879">
        <ele>832.1</ele>
        <time>2016-07-24T10:26:22Z</time>
      </trkpt>
      <trkpt lat="42.40885" lon="0.0688">
        <ele>831.5</ele>
        <time>2016-07-24T10:26:23Z</time>
      </trkpt>
      <trkpt lat="42.40888" lon="0.06881">
        <ele>830.9</ele>
        <time>2016-07-24T10:26:24Z</time>
      </trkpt>
      <trkpt lat="42.40892" lon="0.06881">
        <ele>830.1</ele>
        <time>2016-07-24T10:26:25Z</time>
      </trkpt>
      <trkpt lat="42.40895" lon="0.06882">
        <ele>829.6</ele>
        <time>2016-07-24T10:26:26Z</time>
      </trkpt>
      <trkpt lat="42.40898" lon="0.06884">
        <ele>829.2</ele>
        <time>2016-07-24T10:26:27Z</time>
      </trkpt>
      <trkpt lat="42.40901" lon="0.06887">
        <ele>829.1</ele>
        <time>2016-07-24T10:26:28Z</time>
      </trkpt>
      <trkpt lat="42.40904" lon="0.06891">
        <ele>829.1</ele>
        <time>2016-07-24T10:26:29Z</time>
      </trkpt>
      <trkpt lat="42.40907" lon="0.06894">
        <ele>829.2</ele>
        <time>2016-07-24T10:26:30Z</time>
      </trkpt>
      <trkpt lat="42.4091" lon="0.06898">
        <ele>829.6</ele>
        <time>2016-07-24T10:26:31Z</time>
      </trkpt>
      <trkpt lat="42.40912" lon="0.06902">
        <ele>829.9</ele>
        <time>2016-07-24T10:26:32Z</time>
      </trkpt>
      <trkpt lat="42.40916" lon="0.06906">
        <ele>830</ele>
        <time>2016-07-24T10:26:33Z</time>
      </trkpt>
      <trkpt lat="42.40919" lon="0.06909">
        <ele>829.9</ele>
        <time>2016-07-24T10:26:34Z</time>
      </trkpt>
      <trkpt lat="42.40921" lon="0.06911">
        <ele>829.8</ele>
        <time>2016-07-24T10:26:35Z</time>
      </trkpt>
      <trkpt lat="42.40924" lon="0.06914">
        <ele>829.8</ele>
        <time>2016-07-24T10:26:37Z</time>
      </trkpt>
      <trkpt lat="42.40928" lon="0.06915">
        <ele>829.3</ele>
        <time>2016-07-24T10:26:39Z</time>
      </trkpt>
      <trkpt lat="42.40933" lon="0.06916">
        <ele>828.1</ele>
        <time>2016-07-24T10:26:41Z</time>
      </trkpt>
      <trkpt lat="42.40937" lon="0.06916">
        <ele>827.1</ele>
        <time>2016-07-24T10:26:43Z</time>
      </trkpt>
      <trkpt lat="42.40942" lon="0.06918">
        <ele>826.4</ele>
        <time>2016-07-24T10:26:45Z</time>
      </trkpt>
      <trkpt lat="42.40946" lon="0.06921">
        <ele>826.1</ele>
        <time>2016-07-24T10:26:47Z</time>
      </trkpt>
      <trkpt lat="42.4095" lon="0.06924">
        <ele>826</ele>
        <time>2016-07-24T10:26:49Z</time>
      </trkpt>
      <trkpt lat="42.40954" lon="0.06928">
        <ele>826</ele>
        <time>2016-07-24T10:26:51Z</time>
      </trkpt>
      <trkpt lat="42.40958" lon="0.06932">
        <ele>826</ele>
        <time>2016-07-24T10:26:53Z</time>
      </trkpt>
      <trkpt lat="42.40962" lon="0.06935">
        <ele>825.7</ele>
        <time>2016-07-24T10:26:55Z</time>
      </trkpt>
      <trkpt lat="42.40965" lon="0.06939">
        <ele>825.9</ele>
        <time>2016-07-24T10:26:57Z</time>
      </trkpt>
      <trkpt lat="42.40966" lon="0.06945">
        <ele>827</ele>
        <time>2016-07-24T10:26:59Z</time>
      </trkpt>
      <trkpt lat="42.40967" lon="0.0695">
        <ele>828</ele>
        <time>2016-07-24T10:27:01Z</time>
      </trkpt>
      <trkpt lat="42.40968" lon="0.06954">
        <ele>828.8</ele>
        <time>2016-07-24T10:27:03Z</time>
      </trkpt>
      <trkpt lat="42.40971" lon="0.06959">
        <ele>829.1</ele>
        <time>2016-07-24T10:27:22Z</time>
      </trkpt>
      <trkpt lat="42.40973" lon="0.06961">
        <ele>829.1</ele>
        <time>2016-07-24T10:27:24Z</time>
      </trkpt>
      <trkpt lat="42.40974" lon="0.06965">
        <ele>829.6</ele>
        <time>2016-07-24T10:27:29Z</time>
      </trkpt>
      <trkpt lat="42.40976" lon="0.06972">
        <ele>830.6</ele>
        <time>2016-07-24T10:27:31Z</time>
      </trkpt>
      <trkpt lat="42.40977" lon="0.06977">
        <ele>831.2</ele>
        <time>2016-07-24T10:27:32Z</time>
      </trkpt>
      <trkpt lat="42.40979" lon="0.0698">
        <ele>831.6</ele>
        <time>2016-07-24T10:27:33Z</time>
      </trkpt>
      <trkpt lat="42.40981" lon="0.06984">
        <ele>831.8</ele>
        <time>2016-07-24T10:27:34Z</time>
      </trkpt>
      <trkpt lat="42.40983" lon="0.06989">
        <ele>832.3</ele>
        <time>2016-07-24T10:27:35Z</time>
      </trkpt>
      <trkpt lat="42.40984" lon="0.06994">
        <ele>833.1</ele>
        <time>2016-07-24T10:27:36Z</time>
      </trkpt>
      <trkpt lat="42.40985" lon="0.06999">
        <ele>834</ele>
        <time>2016-07-24T10:27:37Z</time>
      </trkpt>
      <trkpt lat="42.40986" lon="0.07003">
        <ele>834.5</ele>
        <time>2016-07-24T10:27:38Z</time>
      </trkpt>
      <trkpt lat="42.40989" lon="0.07008">
        <ele>834.3</ele>
        <time>2016-07-24T10:27:40Z</time>
      </trkpt>
      <trkpt lat="42.40995" lon="0.07011">
        <ele>832.9</ele>
        <time>2016-07-24T10:27:42Z</time>
      </trkpt>
      <trkpt lat="42.40998" lon="0.07013">
        <ele>831.9</ele>
        <time>2016-07-24T10:27:43Z</time>
      </trkpt>
      <trkpt lat="42.41002" lon="0.07015">
        <ele>830.9</ele>
        <time>2016-07-24T10:27:44Z</time>
      </trkpt>
      <trkpt lat="42.41005" lon="0.07016">
        <ele>830.2</ele>
        <time>2016-07-24T10:27:45Z</time>
      </trkpt>
      <trkpt lat="42.41008" lon="0.0702">
        <ele>829.5</ele>
        <time>2016-07-24T10:27:47Z</time>
      </trkpt>
      <trkpt lat="42.41012" lon="0.07022">
        <ele>828.6</ele>
        <time>2016-07-24T10:27:49Z</time>
      </trkpt>
      <trkpt lat="42.41015" lon="0.07026">
        <ele>827.9</ele>
        <time>2016-07-24T10:27:51Z</time>
      </trkpt>
      <trkpt lat="42.41019" lon="0.0703">
        <ele>827.2</ele>
        <time>2016-07-24T10:27:53Z</time>
      </trkpt>
      <trkpt lat="42.41022" lon="0.07032">
        <ele>826.6</ele>
        <time>2016-07-24T10:27:54Z</time>
      </trkpt>
      <trkpt lat="42.41025" lon="0.07034">
        <ele>825.8</ele>
        <time>2016-07-24T10:27:55Z</time>
      </trkpt>
      <trkpt lat="42.41027" lon="0.07037">
        <ele>825.1</ele>
        <time>2016-07-24T10:27:56Z</time>
      </trkpt>
      <trkpt lat="42.4103" lon="0.07038">
        <ele>824.4</ele>
        <time>2016-07-24T10:27:57Z</time>
      </trkpt>
      <trkpt lat="42.41035" lon="0.07041">
        <ele>822.7</ele>
        <time>2016-07-24T10:27:59Z</time>
      </trkpt>
      <trkpt lat="42.41038" lon="0.07043">
        <ele>821.6</ele>
        <time>2016-07-24T10:28:00Z</time>
      </trkpt>
      <trkpt lat="42.41042" lon="0.07045">
        <ele>820.4</ele>
        <time>2016-07-24T10:28:01Z</time>
      </trkpt>
      <trkpt lat="42.41045" lon="0.07047">
        <ele>820.1</ele>
        <time>2016-07-24T10:28:02Z</time>
      </trkpt>
      <trkpt lat="42.41048" lon="0.07049">
        <ele>819.9</ele>
        <time>2016-07-24T10:28:03Z</time>
      </trkpt>
      <trkpt lat="42.4105" lon="0.07051">
        <ele>819.8</ele>
        <time>2016-07-24T10:28:04Z</time>
      </trkpt>
      <trkpt lat="42.41053" lon="0.07054">
        <ele>819.7</ele>
        <time>2016-07-24T10:28:05Z</time>
      </trkpt>
      <trkpt lat="42.41055" lon="0.07057">
        <ele>819.7</ele>
        <time>2016-07-24T10:28:06Z</time>
      </trkpt>
      <trkpt lat="42.41058" lon="0.07061">
        <ele>819.8</ele>
        <time>2016-07-24T10:28:07Z</time>
      </trkpt>
      <trkpt lat="42.4106" lon="0.07064">
        <ele>819.8</ele>
        <time>2016-07-24T10:28:08Z</time>
      </trkpt>
      <trkpt lat="42.41063" lon="0.07067">
        <ele>819.8</ele>
        <time>2016-07-24T10:28:09Z</time>
      </trkpt>
      <trkpt lat="42.41066" lon="0.07071">
        <ele>819.8</ele>
        <time>2016-07-24T10:28:10Z</time>
      </trkpt>
      <trkpt lat="42.41069" lon="0.07074">
        <ele>819.8</ele>
        <time>2016-07-24T10:28:11Z</time>
      </trkpt>
      <trkpt lat="42.41071" lon="0.07077">
        <ele>819.9</ele>
        <time>2016-07-24T10:28:12Z</time>
      </trkpt>
      <trkpt lat="42.41074" lon="0.07081">
        <ele>820</ele>
        <time>2016-07-24T10:28:13Z</time>
      </trkpt>
      <trkpt lat="42.41078" lon="0.07085">
        <ele>820</ele>
        <time>2016-07-24T10:28:14Z</time>
      </trkpt>
      <trkpt lat="42.41081" lon="0.07088">
        <ele>820</ele>
        <time>2016-07-24T10:28:15Z</time>
      </trkpt>
      <trkpt lat="42.41085" lon="0.07092">
        <ele>820</ele>
        <time>2016-07-24T10:28:16Z</time>
      </trkpt>
      <trkpt lat="42.41087" lon="0.07095">
        <ele>820.2</ele>
        <time>2016-07-24T10:28:17Z</time>
      </trkpt>
      <trkpt lat="42.41089" lon="0.07098">
        <ele>820.4</ele>
        <time>2016-07-24T10:28:18Z</time>
      </trkpt>
      <trkpt lat="42.4109" lon="0.07102">
        <ele>820.7</ele>
        <time>2016-07-24T10:28:19Z</time>
      </trkpt>
      <trkpt lat="42.41092" lon="0.07105">
        <ele>821</ele>
        <time>2016-07-24T10:28:20Z</time>
      </trkpt>
      <trkpt lat="42.41094" lon="0.07108">
        <ele>821.2</ele>
        <time>2016-07-24T10:28:21Z</time>
      </trkpt>
      <trkpt lat="42.41095" lon="0.07112">
        <ele>821.6</ele>
        <time>2016-07-24T10:28:23Z</time>
      </trkpt>
      <trkpt lat="42.41094" lon="0.07116">
        <ele>822.4</ele>
        <time>2016-07-24T10:28:25Z</time>
      </trkpt>
      <trkpt lat="42.41092" lon="0.07119">
        <ele>823.1</ele>
        <time>2016-07-24T10:28:26Z</time>
      </trkpt>
      <trkpt lat="42.4109" lon="0.07123">
        <ele>823.9</ele>
        <time>2016-07-24T10:28:27Z</time>
      </trkpt>
      <trkpt lat="42.41088" lon="0.07129">
        <ele>824.4</ele>
        <time>2016-07-24T10:28:29Z</time>
      </trkpt>
      <trkpt lat="42.41084" lon="0.07132">
        <ele>824.7</ele>
        <time>2016-07-24T10:28:31Z</time>
      </trkpt>
      <trkpt lat="42.4108" lon="0.07134">
        <ele>825.1</ele>
        <time>2016-07-24T10:28:33Z</time>
      </trkpt>
      <trkpt lat="42.41079" lon="0.07139">
        <ele>825.1</ele>
        <time>2016-07-24T10:28:35Z</time>
      </trkpt>
      <trkpt lat="42.41079" lon="0.07144">
        <ele>824.9</ele>
        <time>2016-07-24T10:28:37Z</time>
      </trkpt>
      <trkpt lat="42.4108" lon="0.07148">
        <ele>824.6</ele>
        <time>2016-07-24T10:28:39Z</time>
      </trkpt>
      <trkpt lat="42.41082" lon="0.07151">
        <ele>824.3</ele>
        <time>2016-07-24T10:28:40Z</time>
      </trkpt>
      <trkpt lat="42.41084" lon="0.07153">
        <ele>823.8</ele>
        <time>2016-07-24T10:28:41Z</time>
      </trkpt>
      <trkpt lat="42.41088" lon="0.07157">
        <ele>823.1</ele>
        <time>2016-07-24T10:28:43Z</time>
      </trkpt>
      <trkpt lat="42.41092" lon="0.07163">
        <ele>822.3</ele>
        <time>2016-07-24T10:28:45Z</time>
      </trkpt>
      <trkpt lat="42.41093" lon="0.07166">
        <ele>822</ele>
        <time>2016-07-24T10:28:46Z</time>
      </trkpt>
      <trkpt lat="42.41097" lon="0.07172">
        <ele>821.2</ele>
        <time>2016-07-24T10:28:48Z</time>
      </trkpt>
      <trkpt lat="42.41098" lon="0.07175">
        <ele>820.8</ele>
        <time>2016-07-24T10:28:49Z</time>
      </trkpt>
      <trkpt lat="42.411" lon="0.07179">
        <ele>820.2</ele>
        <time>2016-07-24T10:28:51Z</time>
      </trkpt>
      <trkpt lat="42.41103" lon="0.07185">
        <ele>819.4</ele>
        <time>2016-07-24T10:28:53Z</time>
      </trkpt>
      <trkpt lat="42.41106" lon="0.07189">
        <ele>818.8</ele>
        <time>2016-07-24T10:28:55Z</time>
      </trkpt>
      <trkpt lat="42.41108" lon="0.07194">
        <ele>818.1</ele>
        <time>2016-07-24T10:28:57Z</time>
      </trkpt>
      <trkpt lat="42.41109" lon="0.07199">
        <ele>817.5</ele>
        <time>2016-07-24T10:28:59Z</time>
      </trkpt>
      <trkpt lat="42.41112" lon="0.07204">
        <ele>816.8</ele>
        <time>2016-07-24T10:29:01Z</time>
      </trkpt>
      <trkpt lat="42.41115" lon="0.07207">
        <ele>815.9</ele>
        <time>2016-07-24T10:29:03Z</time>
      </trkpt>
      <trkpt lat="42.41118" lon="0.07212">
        <ele>815.1</ele>
        <time>2016-07-24T10:29:05Z</time>
      </trkpt>
      <trkpt lat="42.41122" lon="0.07218">
        <ele>814</ele>
        <time>2016-07-24T10:29:07Z</time>
      </trkpt>
      <trkpt lat="42.41125" lon="0.07222">
        <ele>813.1</ele>
        <time>2016-07-24T10:29:08Z</time>
      </trkpt>
      <trkpt lat="42.41127" lon="0.07226">
        <ele>812.7</ele>
        <time>2016-07-24T10:29:09Z</time>
      </trkpt>
      <trkpt lat="42.4113" lon="0.0723">
        <ele>812.4</ele>
        <time>2016-07-24T10:29:10Z</time>
      </trkpt>
      <trkpt lat="42.41132" lon="0.07233">
        <ele>812</ele>
        <time>2016-07-24T10:29:11Z</time>
      </trkpt>
      <trkpt lat="42.41135" lon="0.07236">
        <ele>811.7</ele>
        <time>2016-07-24T10:29:12Z</time>
      </trkpt>
      <trkpt lat="42.41139" lon="0.0724">
        <ele>811.1</ele>
        <time>2016-07-24T10:29:14Z</time>
      </trkpt>
      <trkpt lat="42.41141" lon="0.07243">
        <ele>810.8</ele>
        <time>2016-07-24T10:29:15Z</time>
      </trkpt>
      <trkpt lat="42.41143" lon="0.07247">
        <ele>810.2</ele>
        <time>2016-07-24T10:29:16Z</time>
      </trkpt>
      <trkpt lat="42.41146" lon="0.07252">
        <ele>809.6</ele>
        <time>2016-07-24T10:29:17Z</time>
      </trkpt>
      <trkpt lat="42.41148" lon="0.07255">
        <ele>809</ele>
        <time>2016-07-24T10:29:18Z</time>
      </trkpt>
      <trkpt lat="42.41149" lon="0.07258">
        <ele>808.6</ele>
        <time>2016-07-24T10:29:19Z</time>
      </trkpt>
      <trkpt lat="42.41151" lon="0.07261">
        <ele>808</ele>
        <time>2016-07-24T10:29:20Z</time>
      </trkpt>
      <trkpt lat="42.41153" lon="0.07265">
        <ele>807.3</ele>
        <time>2016-07-24T10:29:21Z</time>
      </trkpt>
      <trkpt lat="42.41154" lon="0.07269">
        <ele>806.8</ele>
        <time>2016-07-24T10:29:22Z</time>
      </trkpt>
      <trkpt lat="42.41154" lon="0.07275">
        <ele>806</ele>
        <time>2016-07-24T10:29:24Z</time>
      </trkpt>
      <trkpt lat="42.41155" lon="0.0728">
        <ele>805.2</ele>
        <time>2016-07-24T10:29:26Z</time>
      </trkpt>
      <trkpt lat="42.41156" lon="0.07284">
        <ele>804.6</ele>
        <time>2016-07-24T10:29:27Z</time>
      </trkpt>
      <trkpt lat="42.41158" lon="0.07289">
        <ele>803.7</ele>
        <time>2016-07-24T10:29:29Z</time>
      </trkpt>
      <trkpt lat="42.41162" lon="0.07294">
        <ele>802.5</ele>
        <time>2016-07-24T10:29:31Z</time>
      </trkpt>
      <trkpt lat="42.41164" lon="0.07297">
        <ele>801.6</ele>
        <time>2016-07-24T10:29:32Z</time>
      </trkpt>
      <trkpt lat="42.41166" lon="0.07302">
        <ele>800.8</ele>
        <time>2016-07-24T10:29:33Z</time>
      </trkpt>
      <trkpt lat="42.41167" lon="0.07306">
        <ele>800</ele>
        <time>2016-07-24T10:29:34Z</time>
      </trkpt>
      <trkpt lat="42.41168" lon="0.07312">
        <ele>799</ele>
        <time>2016-07-24T10:29:36Z</time>
      </trkpt>
      <trkpt lat="42.4117" lon="0.07315">
        <ele>798.3</ele>
        <time>2016-07-24T10:29:37Z</time>
      </trkpt>
      <trkpt lat="42.41172" lon="0.07318">
        <ele>797.5</ele>
        <time>2016-07-24T10:29:38Z</time>
      </trkpt>
      <trkpt lat="42.41174" lon="0.07321">
        <ele>796.8</ele>
        <time>2016-07-24T10:29:39Z</time>
      </trkpt>
      <trkpt lat="42.41177" lon="0.07326">
        <ele>795.4</ele>
        <time>2016-07-24T10:29:41Z</time>
      </trkpt>
      <trkpt lat="42.41179" lon="0.07329">
        <ele>794.6</ele>
        <time>2016-07-24T10:29:42Z</time>
      </trkpt>
      <trkpt lat="42.4118" lon="0.07333">
        <ele>793.8</ele>
        <time>2016-07-24T10:29:43Z</time>
      </trkpt>
      <trkpt lat="42.41182" lon="0.07339">
        <ele>792.4</ele>
        <time>2016-07-24T10:29:45Z</time>
      </trkpt>
      <trkpt lat="42.41184" lon="0.07342">
        <ele>791.6</ele>
        <time>2016-07-24T10:29:49Z</time>
      </trkpt>
      <trkpt lat="42.41187" lon="0.07346">
        <ele>790.3</ele>
        <time>2016-07-24T10:29:59Z</time>
      </trkpt>
      <trkpt lat="42.41191" lon="0.07348">
        <ele>789</ele>
        <time>2016-07-24T10:30:01Z</time>
      </trkpt>
      <trkpt lat="42.41194" lon="0.07348">
        <ele>788.5</ele>
        <time>2016-07-24T10:30:07Z</time>
      </trkpt>
      <trkpt lat="42.41196" lon="0.07346">
        <ele>788.2</ele>
        <time>2016-07-24T10:30:11Z</time>
      </trkpt>
      <trkpt lat="42.41199" lon="0.07344">
        <ele>788</ele>
        <time>2016-07-24T10:30:15Z</time>
      </trkpt>
      <trkpt lat="42.41201" lon="0.07341">
        <ele>788.1</ele>
        <time>2016-07-24T10:30:18Z</time>
      </trkpt>
      <trkpt lat="42.41204" lon="0.07339">
        <ele>787.9</ele>
        <time>2016-07-24T10:30:22Z</time>
      </trkpt>
      <trkpt lat="42.41206" lon="0.07337">
        <ele>787.8</ele>
        <time>2016-07-24T10:30:27Z</time>
      </trkpt>
      <trkpt lat="42.4121" lon="0.07337">
        <ele>787.3</ele>
        <time>2016-07-24T10:30:30Z</time>
      </trkpt>
      <trkpt lat="42.41212" lon="0.07338">
        <ele>787.2</ele>
        <time>2016-07-24T10:30:31Z</time>
      </trkpt>
      <trkpt lat="42.41215" lon="0.07341">
        <ele>786.9</ele>
        <time>2016-07-24T10:30:32Z</time>
      </trkpt>
      <trkpt lat="42.41218" lon="0.07344">
        <ele>786.4</ele>
        <time>2016-07-24T10:30:33Z</time>
      </trkpt>
      <trkpt lat="42.4122" lon="0.07346">
        <ele>786</ele>
        <time>2016-07-24T10:30:34Z</time>
      </trkpt>
      <trkpt lat="42.41223" lon="0.07349">
        <ele>785.7</ele>
        <time>2016-07-24T10:30:35Z</time>
      </trkpt>
      <trkpt lat="42.41226" lon="0.0735">
        <ele>785.4</ele>
        <time>2016-07-24T10:30:36Z</time>
      </trkpt>
      <trkpt lat="42.41229" lon="0.07352">
        <ele>785.2</ele>
        <time>2016-07-24T10:30:37Z</time>
      </trkpt>
      <trkpt lat="42.41233" lon="0.07353">
        <ele>785.1</ele>
        <time>2016-07-24T10:30:38Z</time>
      </trkpt>
      <trkpt lat="42.41237" lon="0.07354">
        <ele>785</ele>
        <time>2016-07-24T10:30:39Z</time>
      </trkpt>
      <trkpt lat="42.4124" lon="0.07355">
        <ele>784.9</ele>
        <time>2016-07-24T10:30:40Z</time>
      </trkpt>
      <trkpt lat="42.41244" lon="0.07358">
        <ele>784.5</ele>
        <time>2016-07-24T10:30:42Z</time>
      </trkpt>
      <trkpt lat="42.41248" lon="0.07362">
        <ele>783.6</ele>
        <time>2016-07-24T10:30:44Z</time>
      </trkpt>
      <trkpt lat="42.4125" lon="0.07367">
        <ele>782.7</ele>
        <time>2016-07-24T10:30:46Z</time>
      </trkpt>
      <trkpt lat="42.41251" lon="0.07372">
        <ele>781.7</ele>
        <time>2016-07-24T10:30:48Z</time>
      </trkpt>
      <trkpt lat="42.41253" lon="0.0738">
        <ele>780.4</ele>
        <time>2016-07-24T10:30:50Z</time>
      </trkpt>
      <trkpt lat="42.41253" lon="0.07384">
        <ele>779.7</ele>
        <time>2016-07-24T10:30:51Z</time>
      </trkpt>
      <trkpt lat="42.41252" lon="0.0739">
        <ele>778.9</ele>
        <time>2016-07-24T10:30:52Z</time>
      </trkpt>
      <trkpt lat="42.41252" lon="0.07397">
        <ele>778</ele>
        <time>2016-07-24T10:30:53Z</time>
      </trkpt>
      <trkpt lat="42.41251" lon="0.07403">
        <ele>777.1</ele>
        <time>2016-07-24T10:30:54Z</time>
      </trkpt>
      <trkpt lat="42.41251" lon="0.0741">
        <ele>776.2</ele>
        <time>2016-07-24T10:30:55Z</time>
      </trkpt>
      <trkpt lat="42.41251" lon="0.07416">
        <ele>775.3</ele>
        <time>2016-07-24T10:30:56Z</time>
      </trkpt>
      <trkpt lat="42.41251" lon="0.07422">
        <ele>774.5</ele>
        <time>2016-07-24T10:30:57Z</time>
      </trkpt>
      <trkpt lat="42.41252" lon="0.07428">
        <ele>773.6</ele>
        <time>2016-07-24T10:30:58Z</time>
      </trkpt>
      <trkpt lat="42.41252" lon="0.07434">
        <ele>772.7</ele>
        <time>2016-07-24T10:30:59Z</time>
      </trkpt>
      <trkpt lat="42.41253" lon="0.07439">
        <ele>772</ele>
        <time>2016-07-24T10:31:00Z</time>
      </trkpt>
      <trkpt lat="42.41254" lon="0.07444">
        <ele>771.4</ele>
        <time>2016-07-24T10:31:01Z</time>
      </trkpt>
      <trkpt lat="42.41255" lon="0.07448">
        <ele>770.7</ele>
        <time>2016-07-24T10:31:02Z</time>
      </trkpt>
      <trkpt lat="42.41257" lon="0.07453">
        <ele>769.9</ele>
        <time>2016-07-24T10:31:03Z</time>
      </trkpt>
      <trkpt lat="42.41259" lon="0.07457">
        <ele>769.2</ele>
        <time>2016-07-24T10:31:04Z</time>
      </trkpt>
      <trkpt lat="42.41261" lon="0.07462">
        <ele>768.6</ele>
        <time>2016-07-24T10:31:05Z</time>
      </trkpt>
      <trkpt lat="42.41262" lon="0.07468">
        <ele>768</ele>
        <time>2016-07-24T10:31:06Z</time>
      </trkpt>
      <trkpt lat="42.41264" lon="0.07473">
        <ele>767.3</ele>
        <time>2016-07-24T10:31:07Z</time>
      </trkpt>
      <trkpt lat="42.41266" lon="0.07479">
        <ele>766.7</ele>
        <time>2016-07-24T10:31:08Z</time>
      </trkpt>
      <trkpt lat="42.41269" lon="0.07484">
        <ele>765.9</ele>
        <time>2016-07-24T10:31:09Z</time>
      </trkpt>
      <trkpt lat="42.41272" lon="0.0749">
        <ele>765.1</ele>
        <time>2016-07-24T10:31:10Z</time>
      </trkpt>
      <trkpt lat="42.41276" lon="0.07495">
        <ele>764.2</ele>
        <time>2016-07-24T10:31:11Z</time>
      </trkpt>
      <trkpt lat="42.4128" lon="0.07501">
        <ele>763.2</ele>
        <time>2016-07-24T10:31:12Z</time>
      </trkpt>
      <trkpt lat="42.41285" lon="0.07507">
        <ele>762</ele>
        <time>2016-07-24T10:31:13Z</time>
      </trkpt>
      <trkpt lat="42.41289" lon="0.07513">
        <ele>760.8</ele>
        <time>2016-07-24T10:31:14Z</time>
      </trkpt>
      <trkpt lat="42.41294" lon="0.07518">
        <ele>760</ele>
        <time>2016-07-24T10:31:15Z</time>
      </trkpt>
      <trkpt lat="42.41297" lon="0.07523">
        <ele>759.8</ele>
        <time>2016-07-24T10:31:16Z</time>
      </trkpt>
      <trkpt lat="42.413" lon="0.07528">
        <ele>759.6</ele>
        <time>2016-07-24T10:31:17Z</time>
      </trkpt>
      <trkpt lat="42.41303" lon="0.0753">
        <ele>759.5</ele>
        <time>2016-07-24T10:31:18Z</time>
      </trkpt>
      <trkpt lat="42.41307" lon="0.07533">
        <ele>759.5</ele>
        <time>2016-07-24T10:31:20Z</time>
      </trkpt>
      <trkpt lat="42.4131" lon="0.07537">
        <ele>759.3</ele>
        <time>2016-07-24T10:31:22Z</time>
      </trkpt>
      <trkpt lat="42.41313" lon="0.07542">
        <ele>759</ele>
        <time>2016-07-24T10:31:24Z</time>
      </trkpt>
      <trkpt lat="42.41316" lon="0.07547">
        <ele>758.8</ele>
        <time>2016-07-24T10:31:26Z</time>
      </trkpt>
      <trkpt lat="42.41318" lon="0.07549">
        <ele>758.7</ele>
        <time>2016-07-24T10:31:27Z</time>
      </trkpt>
      <trkpt lat="42.4132" lon="0.07552">
        <ele>758.7</ele>
        <time>2016-07-24T10:31:28Z</time>
      </trkpt>
      <trkpt lat="42.41324" lon="0.07555">
        <ele>758.6</ele>
        <time>2016-07-24T10:31:30Z</time>
      </trkpt>
      <trkpt lat="42.41328" lon="0.07558">
        <ele>758.6</ele>
        <time>2016-07-24T10:31:32Z</time>
      </trkpt>
      <trkpt lat="42.4133" lon="0.0756">
        <ele>758.5</ele>
        <time>2016-07-24T10:31:33Z</time>
      </trkpt>
      <trkpt lat="42.41333" lon="0.07563">
        <ele>758.4</ele>
        <time>2016-07-24T10:31:34Z</time>
      </trkpt>
      <trkpt lat="42.41335" lon="0.07567">
        <ele>758.2</ele>
        <time>2016-07-24T10:31:35Z</time>
      </trkpt>
      <trkpt lat="42.41338" lon="0.0757">
        <ele>757.9</ele>
        <time>2016-07-24T10:31:36Z</time>
      </trkpt>
      <trkpt lat="42.41341" lon="0.07573">
        <ele>757.7</ele>
        <time>2016-07-24T10:31:37Z</time>
      </trkpt>
      <trkpt lat="42.41344" lon="0.07577">
        <ele>757.4</ele>
        <time>2016-07-24T10:31:38Z</time>
      </trkpt>
      <trkpt lat="42.41347" lon="0.07581">
        <ele>757.1</ele>
        <time>2016-07-24T10:31:39Z</time>
      </trkpt>
      <trkpt lat="42.4135" lon="0.07585">
        <ele>756.8</ele>
        <time>2016-07-24T10:31:40Z</time>
      </trkpt>
      <trkpt lat="42.41354" lon="0.07589">
        <ele>756.4</ele>
        <time>2016-07-24T10:31:41Z</time>
      </trkpt>
      <trkpt lat="42.41357" lon="0.07593">
        <ele>756.1</ele>
        <time>2016-07-24T10:31:42Z</time>
      </trkpt>
      <trkpt lat="42.4136" lon="0.07596">
        <ele>755.7</ele>
        <time>2016-07-24T10:31:43Z</time>
      </trkpt>
      <trkpt lat="42.41362" lon="0.076">
        <ele>755.3</ele>
        <time>2016-07-24T10:31:44Z</time>
      </trkpt>
      <trkpt lat="42.41363" lon="0.07605">
        <ele>754.6</ele>
        <time>2016-07-24T10:31:45Z</time>
      </trkpt>
      <trkpt lat="42.41364" lon="0.07611">
        <ele>753.8</ele>
        <time>2016-07-24T10:31:46Z</time>
      </trkpt>
      <trkpt lat="42.41364" lon="0.07617">
        <ele>753</ele>
        <time>2016-07-24T10:31:47Z</time>
      </trkpt>
      <trkpt lat="42.41364" lon="0.07622">
        <ele>752.2</ele>
        <time>2016-07-24T10:31:48Z</time>
      </trkpt>
      <trkpt lat="42.41364" lon="0.07627">
        <ele>751.4</ele>
        <time>2016-07-24T10:31:49Z</time>
      </trkpt>
      <trkpt lat="42.41363" lon="0.07631">
        <ele>750.9</ele>
        <time>2016-07-24T10:31:50Z</time>
      </trkpt>
      <trkpt lat="42.41362" lon="0.07635">
        <ele>750.3</ele>
        <time>2016-07-24T10:31:53Z</time>
      </trkpt>
      <trkpt lat="42.41364" lon="0.07637">
        <ele>750</ele>
        <time>2016-07-24T10:31:58Z</time>
      </trkpt>
      <trkpt lat="42.41367" lon="0.07638">
        <ele>749.9</ele>
        <time>2016-07-24T10:32:04Z</time>
      </trkpt>
      <trkpt lat="42.4137" lon="0.07638">
        <ele>749.8</ele>
        <time>2016-07-24T10:32:12Z</time>
      </trkpt>
      <trkpt lat="42.41372" lon="0.07641">
        <ele>749.3</ele>
        <time>2016-07-24T10:32:14Z</time>
      </trkpt>
      <trkpt lat="42.41377" lon="0.07646">
        <ele>748.7</ele>
        <time>2016-07-24T10:32:16Z</time>
      </trkpt>
      <trkpt lat="42.4138" lon="0.07649">
        <ele>748.7</ele>
        <time>2016-07-24T10:32:17Z</time>
      </trkpt>
      <trkpt lat="42.41383" lon="0.07651">
        <ele>748.7</ele>
        <time>2016-07-24T10:32:18Z</time>
      </trkpt>
      <trkpt lat="42.41386" lon="0.07654">
        <ele>748.6</ele>
        <time>2016-07-24T10:32:19Z</time>
      </trkpt>
      <trkpt lat="42.41388" lon="0.07658">
        <ele>748.2</ele>
        <time>2016-07-24T10:32:20Z</time>
      </trkpt>
      <trkpt lat="42.4139" lon="0.07663">
        <ele>747.8</ele>
        <time>2016-07-24T10:32:21Z</time>
      </trkpt>
      <trkpt lat="42.41392" lon="0.07668">
        <ele>747.1</ele>
        <time>2016-07-24T10:32:22Z</time>
      </trkpt>
      <trkpt lat="42.41393" lon="0.07672">
        <ele>746.6</ele>
        <time>2016-07-24T10:32:23Z</time>
      </trkpt>
      <trkpt lat="42.41395" lon="0.07677">
        <ele>746.1</ele>
        <time>2016-07-24T10:32:24Z</time>
      </trkpt>
      <trkpt lat="42.41397" lon="0.0768">
        <ele>745.7</ele>
        <time>2016-07-24T10:32:25Z</time>
      </trkpt>
      <trkpt lat="42.41399" lon="0.07684">
        <ele>745.4</ele>
        <time>2016-07-24T10:32:26Z</time>
      </trkpt>
      <trkpt lat="42.41401" lon="0.07687">
        <ele>745.1</ele>
        <time>2016-07-24T10:32:27Z</time>
      </trkpt>
      <trkpt lat="42.41402" lon="0.07691">
        <ele>744.6</ele>
        <time>2016-07-24T10:32:28Z</time>
      </trkpt>
      <trkpt lat="42.41404" lon="0.07695">
        <ele>744.2</ele>
        <time>2016-07-24T10:32:29Z</time>
      </trkpt>
      <trkpt lat="42.41406" lon="0.07699">
        <ele>743.7</ele>
        <time>2016-07-24T10:32:30Z</time>
      </trkpt>
      <trkpt lat="42.41408" lon="0.07703">
        <ele>743.3</ele>
        <time>2016-07-24T10:32:31Z</time>
      </trkpt>
      <trkpt lat="42.4141" lon="0.07707">
        <ele>742.8</ele>
        <time>2016-07-24T10:32:32Z</time>
      </trkpt>
      <trkpt lat="42.41412" lon="0.07711">
        <ele>742.6</ele>
        <time>2016-07-24T10:32:33Z</time>
      </trkpt>
      <trkpt lat="42.41415" lon="0.07714">
        <ele>742.5</ele>
        <time>2016-07-24T10:32:34Z</time>
      </trkpt>
      <trkpt lat="42.41417" lon="0.07718">
        <ele>742.3</ele>
        <time>2016-07-24T10:32:35Z</time>
      </trkpt>
      <trkpt lat="42.4142" lon="0.07722">
        <ele>742</ele>
        <time>2016-07-24T10:32:36Z</time>
      </trkpt>
      <trkpt lat="42.41421" lon="0.07727">
        <ele>741.5</ele>
        <time>2016-07-24T10:32:37Z</time>
      </trkpt>
      <trkpt lat="42.41423" lon="0.07732">
        <ele>741</ele>
        <time>2016-07-24T10:32:38Z</time>
      </trkpt>
      <trkpt lat="42.41424" lon="0.07737">
        <ele>740.4</ele>
        <time>2016-07-24T10:32:39Z</time>
      </trkpt>
      <trkpt lat="42.41426" lon="0.07742">
        <ele>739.8</ele>
        <time>2016-07-24T10:32:40Z</time>
      </trkpt>
      <trkpt lat="42.41427" lon="0.07747">
        <ele>739.3</ele>
        <time>2016-07-24T10:32:41Z</time>
      </trkpt>
      <trkpt lat="42.41428" lon="0.07751">
        <ele>738.8</ele>
        <time>2016-07-24T10:32:42Z</time>
      </trkpt>
      <trkpt lat="42.41429" lon="0.07755">
        <ele>738.2</ele>
        <time>2016-07-24T10:32:43Z</time>
      </trkpt>
      <trkpt lat="42.4143" lon="0.07759">
        <ele>737.8</ele>
        <time>2016-07-24T10:32:44Z</time>
      </trkpt>
      <trkpt lat="42.41431" lon="0.07764">
        <ele>737.1</ele>
        <time>2016-07-24T10:32:46Z</time>
      </trkpt>
      <trkpt lat="42.41432" lon="0.07767">
        <ele>736.8</ele>
        <time>2016-07-24T10:32:50Z</time>
      </trkpt>
      <trkpt lat="42.41435" lon="0.0777">
        <ele>736.6</ele>
        <time>2016-07-24T10:32:53Z</time>
      </trkpt>
      <trkpt lat="42.41439" lon="0.07776">
        <ele>736</ele>
        <time>2016-07-24T10:32:55Z</time>
      </trkpt>
      <trkpt lat="42.41441" lon="0.07779">
        <ele>735.7</ele>
        <time>2016-07-24T10:32:56Z</time>
      </trkpt>
      <trkpt lat="42.41443" lon="0.07783">
        <ele>735.3</ele>
        <time>2016-07-24T10:32:57Z</time>
      </trkpt>
      <trkpt lat="42.41446" lon="0.07787">
        <ele>734.8</ele>
        <time>2016-07-24T10:32:58Z</time>
      </trkpt>
      <trkpt lat="42.41448" lon="0.07791">
        <ele>734.4</ele>
        <time>2016-07-24T10:32:59Z</time>
      </trkpt>
      <trkpt lat="42.4145" lon="0.07794">
        <ele>734.3</ele>
        <time>2016-07-24T10:33:00Z</time>
      </trkpt>
      <trkpt lat="42.41452" lon="0.07799">
        <ele>734.3</ele>
        <time>2016-07-24T10:33:02Z</time>
      </trkpt>
      <trkpt lat="42.41455" lon="0.07802">
        <ele>734.4</ele>
        <time>2016-07-24T10:33:04Z</time>
      </trkpt>
      <trkpt lat="42.4146" lon="0.07805">
        <ele>734.6</ele>
        <time>2016-07-24T10:33:06Z</time>
      </trkpt>
      <trkpt lat="42.41462" lon="0.07807">
        <ele>734.6</ele>
        <time>2016-07-24T10:33:07Z</time>
      </trkpt>
      <trkpt lat="42.41465" lon="0.07808">
        <ele>734.7</ele>
        <time>2016-07-24T10:33:08Z</time>
      </trkpt>
      <trkpt lat="42.41469" lon="0.07811">
        <ele>734.7</ele>
        <time>2016-07-24T10:33:10Z</time>
      </trkpt>
      <trkpt lat="42.41472" lon="0.07814">
        <ele>734.5</ele>
        <time>2016-07-24T10:33:12Z</time>
      </trkpt>
      <trkpt lat="42.4147" lon="0.07819">
        <ele>734.1</ele>
        <time>2016-07-24T10:33:14Z</time>
      </trkpt>
      <trkpt lat="42.41467" lon="0.0782">
        <ele>734</ele>
        <time>2016-07-24T10:33:15Z</time>
      </trkpt>
      <trkpt lat="42.41464" lon="0.0782">
        <ele>734</ele>
        <time>2016-07-24T10:33:16Z</time>
      </trkpt>
      <trkpt lat="42.41461" lon="0.0782">
        <ele>734</ele>
        <time>2016-07-24T10:33:17Z</time>
      </trkpt>
      <trkpt lat="42.41457" lon="0.07819">
        <ele>733.9</ele>
        <time>2016-07-24T10:33:18Z</time>
      </trkpt>
      <trkpt lat="42.41453" lon="0.07819">
        <ele>733.6</ele>
        <time>2016-07-24T10:33:19Z</time>
      </trkpt>
      <trkpt lat="42.4145" lon="0.07818">
        <ele>733.3</ele>
        <time>2016-07-24T10:33:20Z</time>
      </trkpt>
      <trkpt lat="42.41447" lon="0.07819">
        <ele>733.1</ele>
        <time>2016-07-24T10:33:21Z</time>
      </trkpt>
      <trkpt lat="42.41444" lon="0.07822">
        <ele>732.7</ele>
        <time>2016-07-24T10:33:23Z</time>
      </trkpt>
      <trkpt lat="42.41445" lon="0.07827">
        <ele>732.5</ele>
        <time>2016-07-24T10:33:25Z</time>
      </trkpt>
      <trkpt lat="42.41448" lon="0.07833">
        <ele>732.6</ele>
        <time>2016-07-24T10:33:27Z</time>
      </trkpt>
      <trkpt lat="42.4145" lon="0.07837">
        <ele>732.6</ele>
        <time>2016-07-24T10:33:30Z</time>
      </trkpt>
      <trkpt lat="42.41453" lon="0.07842">
        <ele>732.7</ele>
        <time>2016-07-24T10:33:32Z</time>
      </trkpt>
      <trkpt lat="42.41454" lon="0.07847">
        <ele>732.6</ele>
        <time>2016-07-24T10:33:34Z</time>
      </trkpt>
      <trkpt lat="42.41455" lon="0.0785">
        <ele>732.6</ele>
        <time>2016-07-24T10:33:35Z</time>
      </trkpt>
      <trkpt lat="42.41455" lon="0.07854">
        <ele>732.5</ele>
        <time>2016-07-24T10:33:36Z</time>
      </trkpt>
      <trkpt lat="42.41456" lon="0.07859">
        <ele>732.3</ele>
        <time>2016-07-24T10:33:37Z</time>
      </trkpt>
      <trkpt lat="42.41456" lon="0.07863">
        <ele>732.2</ele>
        <time>2016-07-24T10:33:38Z</time>
      </trkpt>
      <trkpt lat="42.41456" lon="0.07867">
        <ele>732</ele>
        <time>2016-07-24T10:33:39Z</time>
      </trkpt>
      <trkpt lat="42.41457" lon="0.07871">
        <ele>731.9</ele>
        <time>2016-07-24T10:33:40Z</time>
      </trkpt>
      <trkpt lat="42.41457" lon="0.07875">
        <ele>731.9</ele>
        <time>2016-07-24T10:33:41Z</time>
      </trkpt>
      <trkpt lat="42.41459" lon="0.07879">
        <ele>732.1</ele>
        <time>2016-07-24T10:33:42Z</time>
      </trkpt>
      <trkpt lat="42.4146" lon="0.07884">
        <ele>732</ele>
        <time>2016-07-24T10:33:43Z</time>
      </trkpt>
      <trkpt lat="42.41462" lon="0.07889">
        <ele>731.9</ele>
        <time>2016-07-24T10:33:44Z</time>
      </trkpt>
      <trkpt lat="42.41463" lon="0.07893">
        <ele>731.8</ele>
        <time>2016-07-24T10:33:45Z</time>
      </trkpt>
      <trkpt lat="42.41464" lon="0.07897">
        <ele>731.7</ele>
        <time>2016-07-24T10:33:46Z</time>
      </trkpt>
      <trkpt lat="42.41466" lon="0.07901">
        <ele>731.4</ele>
        <time>2016-07-24T10:33:48Z</time>
      </trkpt>
      <trkpt lat="42.41469" lon="0.07906">
        <ele>730.9</ele>
        <time>2016-07-24T10:34:59Z</time>
      </trkpt>
      <trkpt lat="42.41469" lon="0.07913">
        <ele>730.9</ele>
        <time>2016-07-24T10:35:01Z</time>
      </trkpt>
      <trkpt lat="42.4147" lon="0.0792">
        <ele>730.7</ele>
        <time>2016-07-24T10:35:03Z</time>
      </trkpt>
      <trkpt lat="42.41472" lon="0.07924">
        <ele>730.3</ele>
        <time>2016-07-24T10:35:04Z</time>
      </trkpt>
      <trkpt lat="42.41473" lon="0.07929">
        <ele>729.9</ele>
        <time>2016-07-24T10:35:05Z</time>
      </trkpt>
      <trkpt lat="42.41474" lon="0.07934">
        <ele>729.6</ele>
        <time>2016-07-24T10:35:06Z</time>
      </trkpt>
      <trkpt lat="42.41475" lon="0.0794">
        <ele>729.4</ele>
        <time>2016-07-24T10:35:07Z</time>
      </trkpt>
      <trkpt lat="42.41476" lon="0.07944">
        <ele>729.1</ele>
        <time>2016-07-24T10:35:08Z</time>
      </trkpt>
      <trkpt lat="42.41477" lon="0.07948">
        <ele>728.8</ele>
        <time>2016-07-24T10:35:09Z</time>
      </trkpt>
      <trkpt lat="42.41479" lon="0.07953">
        <ele>728.2</ele>
        <time>2016-07-24T10:35:10Z</time>
      </trkpt>
      <trkpt lat="42.41481" lon="0.07958">
        <ele>727.4</ele>
        <time>2016-07-24T10:35:11Z</time>
      </trkpt>
      <trkpt lat="42.41483" lon="0.07963">
        <ele>726.4</ele>
        <time>2016-07-24T10:35:12Z</time>
      </trkpt>
      <trkpt lat="42.41484" lon="0.07968">
        <ele>725.6</ele>
        <time>2016-07-24T10:35:13Z</time>
      </trkpt>
      <trkpt lat="42.41484" lon="0.07973">
        <ele>725.1</ele>
        <time>2016-07-24T10:35:14Z</time>
      </trkpt>
      <trkpt lat="42.41484" lon="0.07979">
        <ele>724.8</ele>
        <time>2016-07-24T10:35:15Z</time>
      </trkpt>
      <trkpt lat="42.41483" lon="0.07986">
        <ele>724.5</ele>
        <time>2016-07-24T10:35:16Z</time>
      </trkpt>
      <trkpt lat="42.41484" lon="0.07991">
        <ele>723.9</ele>
        <time>2016-07-24T10:35:17Z</time>
      </trkpt>
      <trkpt lat="42.41485" lon="0.07996">
        <ele>723.1</ele>
        <time>2016-07-24T10:35:18Z</time>
      </trkpt>
      <trkpt lat="42.41487" lon="0.08">
        <ele>722.2</ele>
        <time>2016-07-24T10:35:19Z</time>
      </trkpt>
      <trkpt lat="42.41489" lon="0.08006">
        <ele>721.4</ele>
        <time>2016-07-24T10:35:21Z</time>
      </trkpt>
      <trkpt lat="42.41488" lon="0.08014">
        <ele>720.9</ele>
        <time>2016-07-24T10:35:23Z</time>
      </trkpt>
      <trkpt lat="42.41488" lon="0.08018">
        <ele>720.6</ele>
        <time>2016-07-24T10:35:24Z</time>
      </trkpt>
      <trkpt lat="42.41487" lon="0.08023">
        <ele>720.4</ele>
        <time>2016-07-24T10:35:25Z</time>
      </trkpt>
      <trkpt lat="42.41486" lon="0.08028">
        <ele>720.3</ele>
        <time>2016-07-24T10:35:26Z</time>
      </trkpt>
      <trkpt lat="42.41485" lon="0.08033">
        <ele>720.2</ele>
        <time>2016-07-24T10:35:27Z</time>
      </trkpt>
      <trkpt lat="42.41485" lon="0.08039">
        <ele>719.8</ele>
        <time>2016-07-24T10:35:28Z</time>
      </trkpt>
      <trkpt lat="42.41486" lon="0.08045">
        <ele>719.2</ele>
        <time>2016-07-24T10:35:29Z</time>
      </trkpt>
      <trkpt lat="42.41487" lon="0.08049">
        <ele>718.6</ele>
        <time>2016-07-24T10:35:30Z</time>
      </trkpt>
      <trkpt lat="42.41489" lon="0.08053">
        <ele>717.8</ele>
        <time>2016-07-24T10:35:32Z</time>
      </trkpt>
      <trkpt lat="42.4149" lon="0.08059">
        <ele>717.3</ele>
        <time>2016-07-24T10:35:34Z</time>
      </trkpt>
      <trkpt lat="42.41488" lon="0.08065">
        <ele>717.3</ele>
        <time>2016-07-24T10:35:36Z</time>
      </trkpt>
      <trkpt lat="42.41486" lon="0.08068">
        <ele>717.3</ele>
        <time>2016-07-24T10:35:37Z</time>
      </trkpt>
      <trkpt lat="42.41485" lon="0.08072">
        <ele>717.3</ele>
        <time>2016-07-24T10:35:38Z</time>
      </trkpt>
      <trkpt lat="42.41483" lon="0.08079">
        <ele>716.9</ele>
        <time>2016-07-24T10:35:40Z</time>
      </trkpt>
      <trkpt lat="42.41483" lon="0.08083">
        <ele>716.7</ele>
        <time>2016-07-24T10:35:41Z</time>
      </trkpt>
      <trkpt lat="42.41482" lon="0.08087">
        <ele>716.4</ele>
        <time>2016-07-24T10:35:42Z</time>
      </trkpt>
      <trkpt lat="42.41481" lon="0.08091">
        <ele>716.2</ele>
        <time>2016-07-24T10:35:43Z</time>
      </trkpt>
      <trkpt lat="42.41479" lon="0.08096">
        <ele>716</ele>
        <time>2016-07-24T10:35:44Z</time>
      </trkpt>
      <trkpt lat="42.41476" lon="0.081">
        <ele>715.9</ele>
        <time>2016-07-24T10:35:45Z</time>
      </trkpt>
      <trkpt lat="42.41473" lon="0.08104">
        <ele>715.7</ele>
        <time>2016-07-24T10:35:46Z</time>
      </trkpt>
      <trkpt lat="42.41471" lon="0.08108">
        <ele>715.5</ele>
        <time>2016-07-24T10:35:47Z</time>
      </trkpt>
      <trkpt lat="42.41468" lon="0.08112">
        <ele>715.3</ele>
        <time>2016-07-24T10:35:48Z</time>
      </trkpt>
      <trkpt lat="42.41465" lon="0.08116">
        <ele>714.9</ele>
        <time>2016-07-24T10:35:49Z</time>
      </trkpt>
      <trkpt lat="42.41462" lon="0.08121">
        <ele>714.4</ele>
        <time>2016-07-24T10:35:50Z</time>
      </trkpt>
      <trkpt lat="42.4146" lon="0.08125">
        <ele>713.9</ele>
        <time>2016-07-24T10:35:51Z</time>
      </trkpt>
      <trkpt lat="42.41458" lon="0.0813">
        <ele>713.2</ele>
        <time>2016-07-24T10:35:52Z</time>
      </trkpt>
      <trkpt lat="42.41457" lon="0.08134">
        <ele>712.5</ele>
        <time>2016-07-24T10:35:53Z</time>
      </trkpt>
      <trkpt lat="42.41455" lon="0.08138">
        <ele>711.7</ele>
        <time>2016-07-24T10:35:55Z</time>
      </trkpt>
      <trkpt lat="42.41454" lon="0.08144">
        <ele>710.7</ele>
        <time>2016-07-24T10:35:57Z</time>
      </trkpt>
      <trkpt lat="42.41455" lon="0.0815">
        <ele>709.8</ele>
        <time>2016-07-24T10:35:59Z</time>
      </trkpt>
      <trkpt lat="42.41457" lon="0.08156">
        <ele>709.2</ele>
        <time>2016-07-24T10:36:01Z</time>
      </trkpt>
      <trkpt lat="42.41459" lon="0.08162">
        <ele>708.3</ele>
        <time>2016-07-24T10:36:03Z</time>
      </trkpt>
      <trkpt lat="42.4146" lon="0.08166">
        <ele>707.7</ele>
        <time>2016-07-24T10:36:04Z</time>
      </trkpt>
      <trkpt lat="42.41461" lon="0.0817">
        <ele>707.1</ele>
        <time>2016-07-24T10:36:05Z</time>
      </trkpt>
      <trkpt lat="42.41462" lon="0.08174">
        <ele>706.7</ele>
        <time>2016-07-24T10:36:06Z</time>
      </trkpt>
      <trkpt lat="42.41463" lon="0.08177">
        <ele>706.2</ele>
        <time>2016-07-24T10:36:07Z</time>
      </trkpt>
      <trkpt lat="42.41465" lon="0.08181">
        <ele>705.8</ele>
        <time>2016-07-24T10:36:08Z</time>
      </trkpt>
      <trkpt lat="42.41467" lon="0.08185">
        <ele>705.5</ele>
        <time>2016-07-24T10:36:09Z</time>
      </trkpt>
      <trkpt lat="42.41469" lon="0.08189">
        <ele>705.1</ele>
        <time>2016-07-24T10:36:10Z</time>
      </trkpt>
      <trkpt lat="42.41471" lon="0.08194">
        <ele>704.7</ele>
        <time>2016-07-24T10:36:11Z</time>
      </trkpt>
      <trkpt lat="42.41472" lon="0.08199">
        <ele>704.2</ele>
        <time>2016-07-24T10:36:12Z</time>
      </trkpt>
      <trkpt lat="42.41474" lon="0.08204">
        <ele>703.7</ele>
        <time>2016-07-24T10:36:13Z</time>
      </trkpt>
      <trkpt lat="42.41475" lon="0.08209">
        <ele>703.3</ele>
        <time>2016-07-24T10:36:15Z</time>
      </trkpt>
      <trkpt lat="42.41476" lon="0.08212">
        <ele>703.3</ele>
        <time>2016-07-24T10:36:18Z</time>
      </trkpt>
      <trkpt lat="42.41478" lon="0.08215">
        <ele>703.3</ele>
        <time>2016-07-24T10:36:20Z</time>
      </trkpt>
      <trkpt lat="42.41482" lon="0.08219">
        <ele>703.5</ele>
        <time>2016-07-24T10:36:22Z</time>
      </trkpt>
      <trkpt lat="42.41484" lon="0.08221">
        <ele>703.6</ele>
        <time>2016-07-24T10:36:24Z</time>
      </trkpt>
      <trkpt lat="42.41485" lon="0.08226">
        <ele>703.3</ele>
        <time>2016-07-24T10:36:27Z</time>
      </trkpt>
      <trkpt lat="42.41486" lon="0.0823">
        <ele>703</ele>
        <time>2016-07-24T10:36:32Z</time>
      </trkpt>
      <trkpt lat="42.41488" lon="0.08233">
        <ele>703.1</ele>
        <time>2016-07-24T10:36:34Z</time>
      </trkpt>
      <trkpt lat="42.41491" lon="0.08237">
        <ele>703.1</ele>
        <time>2016-07-24T10:36:36Z</time>
      </trkpt>
      <trkpt lat="42.41495" lon="0.08242">
        <ele>703</ele>
        <time>2016-07-24T10:36:38Z</time>
      </trkpt>
      <trkpt lat="42.41496" lon="0.08246">
        <ele>703</ele>
        <time>2016-07-24T10:36:39Z</time>
      </trkpt>
      <trkpt lat="42.41499" lon="0.0825">
        <ele>702.9</ele>
        <time>2016-07-24T10:36:41Z</time>
      </trkpt>
      <trkpt lat="42.41502" lon="0.08252">
        <ele>703</ele>
        <time>2016-07-24T10:36:43Z</time>
      </trkpt>
      <trkpt lat="42.41504" lon="0.08253">
        <ele>703.2</ele>
        <time>2016-07-24T10:36:45Z</time>
      </trkpt>
      <trkpt lat="42.41507" lon="0.08255">
        <ele>703.4</ele>
        <time>2016-07-24T10:36:47Z</time>
      </trkpt>
      <trkpt lat="42.41511" lon="0.08257">
        <ele>703.6</ele>
        <time>2016-07-24T10:36:49Z</time>
      </trkpt>
      <trkpt lat="42.41515" lon="0.0826">
        <ele>703.7</ele>
        <time>2016-07-24T10:36:51Z</time>
      </trkpt>
      <trkpt lat="42.41517" lon="0.08263">
        <ele>703.6</ele>
        <time>2016-07-24T10:36:52Z</time>
      </trkpt>
      <trkpt lat="42.41518" lon="0.08266">
        <ele>703.5</ele>
        <time>2016-07-24T10:36:53Z</time>
      </trkpt>
      <trkpt lat="42.4152" lon="0.08269">
        <ele>703.3</ele>
        <time>2016-07-24T10:36:54Z</time>
      </trkpt>
      <trkpt lat="42.41522" lon="0.08273">
        <ele>703.1</ele>
        <time>2016-07-24T10:36:55Z</time>
      </trkpt>
      <trkpt lat="42.41523" lon="0.08276">
        <ele>702.9</ele>
        <time>2016-07-24T10:36:56Z</time>
      </trkpt>
      <trkpt lat="42.41525" lon="0.08279">
        <ele>702.7</ele>
        <time>2016-07-24T10:36:57Z</time>
      </trkpt>
      <trkpt lat="42.41527" lon="0.08283">
        <ele>702.6</ele>
        <time>2016-07-24T10:36:58Z</time>
      </trkpt>
      <trkpt lat="42.41529" lon="0.08286">
        <ele>702.4</ele>
        <time>2016-07-24T10:36:59Z</time>
      </trkpt>
      <trkpt lat="42.41531" lon="0.08289">
        <ele>702.3</ele>
        <time>2016-07-24T10:37:00Z</time>
      </trkpt>
      <trkpt lat="42.41533" lon="0.08292">
        <ele>702.1</ele>
        <time>2016-07-24T10:37:01Z</time>
      </trkpt>
      <trkpt lat="42.41538" lon="0.08295">
        <ele>702.2</ele>
        <time>2016-07-24T10:37:03Z</time>
      </trkpt>
      <trkpt lat="42.41542" lon="0.08298">
        <ele>702.2</ele>
        <time>2016-07-24T10:37:05Z</time>
      </trkpt>
      <trkpt lat="42.41543" lon="0.08302">
        <ele>702</ele>
        <time>2016-07-24T10:37:06Z</time>
      </trkpt>
      <trkpt lat="42.41544" lon="0.08306">
        <ele>701.5</ele>
        <time>2016-07-24T10:37:07Z</time>
      </trkpt>
      <trkpt lat="42.41543" lon="0.08311">
        <ele>700.8</ele>
        <time>2016-07-24T10:37:08Z</time>
      </trkpt>
      <trkpt lat="42.41543" lon="0.08316">
        <ele>700.1</ele>
        <time>2016-07-24T10:37:09Z</time>
      </trkpt>
      <trkpt lat="42.41543" lon="0.08322">
        <ele>699.3</ele>
        <time>2016-07-24T10:37:11Z</time>
      </trkpt>
      <trkpt lat="42.41544" lon="0.08328">
        <ele>698.7</ele>
        <time>2016-07-24T10:37:13Z</time>
      </trkpt>
      <trkpt lat="42.41546" lon="0.08333">
        <ele>698.4</ele>
        <time>2016-07-24T10:37:15Z</time>
      </trkpt>
      <trkpt lat="42.41549" lon="0.08339">
        <ele>698.2</ele>
        <time>2016-07-24T10:37:17Z</time>
      </trkpt>
      <trkpt lat="42.41551" lon="0.08344">
        <ele>698</ele>
        <time>2016-07-24T10:37:19Z</time>
      </trkpt>
      <trkpt lat="42.41554" lon="0.0835">
        <ele>697.8</ele>
        <time>2016-07-24T10:37:21Z</time>
      </trkpt>
      <trkpt lat="42.41558" lon="0.08353">
        <ele>698.1</ele>
        <time>2016-07-24T10:37:23Z</time>
      </trkpt>
      <trkpt lat="42.41562" lon="0.08356">
        <ele>698.6</ele>
        <time>2016-07-24T10:37:25Z</time>
      </trkpt>
      <trkpt lat="42.41566" lon="0.0836">
        <ele>698.8</ele>
        <time>2016-07-24T10:37:27Z</time>
      </trkpt>
      <trkpt lat="42.41568" lon="0.08362">
        <ele>698.9</ele>
        <time>2016-07-24T10:37:28Z</time>
      </trkpt>
      <trkpt lat="42.4157" lon="0.08365">
        <ele>699</ele>
        <time>2016-07-24T10:37:29Z</time>
      </trkpt>
      <trkpt lat="42.41573" lon="0.08368">
        <ele>699</ele>
        <time>2016-07-24T10:37:30Z</time>
      </trkpt>
      <trkpt lat="42.41576" lon="0.08372">
        <ele>699.1</ele>
        <time>2016-07-24T10:37:31Z</time>
      </trkpt>
      <trkpt lat="42.41579" lon="0.08376">
        <ele>699.1</ele>
        <time>2016-07-24T10:37:32Z</time>
      </trkpt>
      <trkpt lat="42.41582" lon="0.0838">
        <ele>699.2</ele>
        <time>2016-07-24T10:37:33Z</time>
      </trkpt>
      <trkpt lat="42.41584" lon="0.08384">
        <ele>699.3</ele>
        <time>2016-07-24T10:37:34Z</time>
      </trkpt>
      <trkpt lat="42.41587" lon="0.08388">
        <ele>699.4</ele>
        <time>2016-07-24T10:37:35Z</time>
      </trkpt>
      <trkpt lat="42.4159" lon="0.08391">
        <ele>699.5</ele>
        <time>2016-07-24T10:37:36Z</time>
      </trkpt>
      <trkpt lat="42.41594" lon="0.08394">
        <ele>699.9</ele>
        <time>2016-07-24T10:37:37Z</time>
      </trkpt>
      <trkpt lat="42.41597" lon="0.08396">
        <ele>700.3</ele>
        <time>2016-07-24T10:37:38Z</time>
      </trkpt>
      <trkpt lat="42.41601" lon="0.08398">
        <ele>700.8</ele>
        <time>2016-07-24T10:37:39Z</time>
      </trkpt>
      <trkpt lat="42.41605" lon="0.08401">
        <ele>701.1</ele>
        <time>2016-07-24T10:37:40Z</time>
      </trkpt>
      <trkpt lat="42.41608" lon="0.08404">
        <ele>701.2</ele>
        <time>2016-07-24T10:37:41Z</time>
      </trkpt>
      <trkpt lat="42.4161" lon="0.08407">
        <ele>701.2</ele>
        <time>2016-07-24T10:37:42Z</time>
      </trkpt>
      <trkpt lat="42.41613" lon="0.08411">
        <ele>701.2</ele>
        <time>2016-07-24T10:37:43Z</time>
      </trkpt>
      <trkpt lat="42.41615" lon="0.08415">
        <ele>701.1</ele>
        <time>2016-07-24T10:37:44Z</time>
      </trkpt>
      <trkpt lat="42.41617" lon="0.08418">
        <ele>701</ele>
        <time>2016-07-24T10:37:45Z</time>
      </trkpt>
      <trkpt lat="42.41619" lon="0.08422">
        <ele>700.9</ele>
        <time>2016-07-24T10:37:46Z</time>
      </trkpt>
      <trkpt lat="42.41621" lon="0.08426">
        <ele>700.7</ele>
        <time>2016-07-24T10:37:47Z</time>
      </trkpt>
      <trkpt lat="42.41623" lon="0.08429">
        <ele>700.6</ele>
        <time>2016-07-24T10:37:48Z</time>
      </trkpt>
      <trkpt lat="42.41625" lon="0.08432">
        <ele>700.5</ele>
        <time>2016-07-24T10:37:49Z</time>
      </trkpt>
      <trkpt lat="42.41628" lon="0.08436">
        <ele>700.2</ele>
        <time>2016-07-24T10:37:51Z</time>
      </trkpt>
      <trkpt lat="42.41631" lon="0.08437">
        <ele>700.4</ele>
        <time>2016-07-24T10:37:54Z</time>
      </trkpt>
      <trkpt lat="42.41635" lon="0.08436">
        <ele>700.9</ele>
        <time>2016-07-24T10:37:56Z</time>
      </trkpt>
      <trkpt lat="42.4164" lon="0.08435">
        <ele>701.6</ele>
        <time>2016-07-24T10:37:58Z</time>
      </trkpt>
      <trkpt lat="42.41645" lon="0.08435">
        <ele>702.1</ele>
        <time>2016-07-24T10:38:00Z</time>
      </trkpt>
      <trkpt lat="42.4165" lon="0.08436">
        <ele>702.5</ele>
        <time>2016-07-24T10:38:02Z</time>
      </trkpt>
      <trkpt lat="42.41655" lon="0.08436">
        <ele>703</ele>
        <time>2016-07-24T10:38:04Z</time>
      </trkpt>
      <trkpt lat="42.4166" lon="0.08436">
        <ele>703.5</ele>
        <time>2016-07-24T10:38:06Z</time>
      </trkpt>
      <trkpt lat="42.41665" lon="0.08436">
        <ele>704</ele>
        <time>2016-07-24T10:38:08Z</time>
      </trkpt>
      <trkpt lat="42.4167" lon="0.08436">
        <ele>704.6</ele>
        <time>2016-07-24T10:38:10Z</time>
      </trkpt>
      <trkpt lat="42.41673" lon="0.08434">
        <ele>705.1</ele>
        <time>2016-07-24T10:38:11Z</time>
      </trkpt>
      <trkpt lat="42.41676" lon="0.08431">
        <ele>706</ele>
        <time>2016-07-24T10:38:12Z</time>
      </trkpt>
      <trkpt lat="42.41679" lon="0.08427">
        <ele>706.8</ele>
        <time>2016-07-24T10:38:13Z</time>
      </trkpt>
      <trkpt lat="42.41683" lon="0.08423">
        <ele>707.7</ele>
        <time>2016-07-24T10:38:14Z</time>
      </trkpt>
      <trkpt lat="42.41686" lon="0.0842">
        <ele>708.7</ele>
        <time>2016-07-24T10:38:15Z</time>
      </trkpt>
      <trkpt lat="42.4169" lon="0.08416">
        <ele>709.6</ele>
        <time>2016-07-24T10:38:16Z</time>
      </trkpt>
      <trkpt lat="42.41694" lon="0.08413">
        <ele>710.5</ele>
        <time>2016-07-24T10:38:17Z</time>
      </trkpt>
      <trkpt lat="42.41697" lon="0.0841">
        <ele>711.4</ele>
        <time>2016-07-24T10:38:18Z</time>
      </trkpt>
      <trkpt lat="42.41701" lon="0.08407">
        <ele>712.2</ele>
        <time>2016-07-24T10:38:19Z</time>
      </trkpt>
      <trkpt lat="42.41704" lon="0.08405">
        <ele>712.9</ele>
        <time>2016-07-24T10:38:20Z</time>
      </trkpt>
      <trkpt lat="42.41708" lon="0.08404">
        <ele>713.5</ele>
        <time>2016-07-24T10:38:21Z</time>
      </trkpt>
      <trkpt lat="42.41712" lon="0.08403">
        <ele>713.2</ele>
        <time>2016-07-24T10:38:22Z</time>
      </trkpt>
      <trkpt lat="42.41715" lon="0.08403">
        <ele>712.8</ele>
        <time>2016-07-24T10:38:23Z</time>
      </trkpt>
      <trkpt lat="42.41719" lon="0.08403">
        <ele>712.2</ele>
        <time>2016-07-24T10:38:24Z</time>
      </trkpt>
      <trkpt lat="42.41723" lon="0.08406">
        <ele>711.4</ele>
        <time>2016-07-24T10:38:25Z</time>
      </trkpt>
      <trkpt lat="42.41726" lon="0.08409">
        <ele>710.5</ele>
        <time>2016-07-24T10:38:26Z</time>
      </trkpt>
      <trkpt lat="42.41729" lon="0.08413">
        <ele>709.7</ele>
        <time>2016-07-24T10:38:27Z</time>
      </trkpt>
      <trkpt lat="42.41732" lon="0.08416">
        <ele>709</ele>
        <time>2016-07-24T10:38:28Z</time>
      </trkpt>
      <trkpt lat="42.41735" lon="0.0842">
        <ele>708.3</ele>
        <time>2016-07-24T10:38:29Z</time>
      </trkpt>
      <trkpt lat="42.41737" lon="0.08425">
        <ele>707.5</ele>
        <time>2016-07-24T10:38:30Z</time>
      </trkpt>
      <trkpt lat="42.41739" lon="0.08431">
        <ele>706.7</ele>
        <time>2016-07-24T10:38:31Z</time>
      </trkpt>
      <trkpt lat="42.41741" lon="0.08437">
        <ele>706</ele>
        <time>2016-07-24T10:38:32Z</time>
      </trkpt>
      <trkpt lat="42.41742" lon="0.08442">
        <ele>705.4</ele>
        <time>2016-07-24T10:38:33Z</time>
      </trkpt>
      <trkpt lat="42.41744" lon="0.08447">
        <ele>704.8</ele>
        <time>2016-07-24T10:38:34Z</time>
      </trkpt>
      <trkpt lat="42.41745" lon="0.08451">
        <ele>704.3</ele>
        <time>2016-07-24T10:38:35Z</time>
      </trkpt>
      <trkpt lat="42.41746" lon="0.08456">
        <ele>703.9</ele>
        <time>2016-07-24T10:38:36Z</time>
      </trkpt>
      <trkpt lat="42.41746" lon="0.0846">
        <ele>703.6</ele>
        <time>2016-07-24T10:38:37Z</time>
      </trkpt>
      <trkpt lat="42.41745" lon="0.08464">
        <ele>703.4</ele>
        <time>2016-07-24T10:38:38Z</time>
      </trkpt>
      <trkpt lat="42.41744" lon="0.08469">
        <ele>703.3</ele>
        <time>2016-07-24T10:38:39Z</time>
      </trkpt>
      <trkpt lat="42.41742" lon="0.08472">
        <ele>703.2</ele>
        <time>2016-07-24T10:38:40Z</time>
      </trkpt>
      <trkpt lat="42.4174" lon="0.08476">
        <ele>703</ele>
        <time>2016-07-24T10:38:41Z</time>
      </trkpt>
      <trkpt lat="42.41738" lon="0.0848">
        <ele>702.8</ele>
        <time>2016-07-24T10:38:42Z</time>
      </trkpt>
      <trkpt lat="42.41735" lon="0.08484">
        <ele>702.5</ele>
        <time>2016-07-24T10:38:43Z</time>
      </trkpt>
      <trkpt lat="42.41733" lon="0.08488">
        <ele>702.3</ele>
        <time>2016-07-24T10:38:44Z</time>
      </trkpt>
      <trkpt lat="42.41731" lon="0.08491">
        <ele>702</ele>
        <time>2016-07-24T10:38:45Z</time>
      </trkpt>
      <trkpt lat="42.4173" lon="0.08494">
        <ele>701.8</ele>
        <time>2016-07-24T10:38:51Z</time>
      </trkpt>
      <trkpt lat="42.41731" lon="0.08502">
        <ele>701.3</ele>
        <time>2016-07-24T10:39:55Z</time>
      </trkpt>
      <trkpt lat="42.41731" lon="0.08506">
        <ele>701</ele>
        <time>2016-07-24T10:39:57Z</time>
      </trkpt>
      <trkpt lat="42.41731" lon="0.08513">
        <ele>700.6</ele>
        <time>2016-07-24T10:39:59Z</time>
      </trkpt>
      <trkpt lat="42.41731" lon="0.08517">
        <ele>700.3</ele>
        <time>2016-07-24T10:40:00Z</time>
      </trkpt>
      <trkpt lat="42.4173" lon="0.08523">
        <ele>699.9</ele>
        <time>2016-07-24T10:40:02Z</time>
      </trkpt>
      <trkpt lat="42.4173" lon="0.08528">
        <ele>699.5</ele>
        <time>2016-07-24T10:40:04Z</time>
      </trkpt>
      <trkpt lat="42.4173" lon="0.08533">
        <ele>699.2</ele>
        <time>2016-07-24T10:40:06Z</time>
      </trkpt>
      <trkpt lat="42.41729" lon="0.08537">
        <ele>698.8</ele>
        <time>2016-07-24T10:40:08Z</time>
      </trkpt>
      <trkpt lat="42.41728" lon="0.08542">
        <ele>698.4</ele>
        <time>2016-07-24T10:40:10Z</time>
      </trkpt>
      <trkpt lat="42.41728" lon="0.08548">
        <ele>698.1</ele>
        <time>2016-07-24T10:40:12Z</time>
      </trkpt>
      <trkpt lat="42.41727" lon="0.08553">
        <ele>697.9</ele>
        <time>2016-07-24T10:40:14Z</time>
      </trkpt>
      <trkpt lat="42.41727" lon="0.08558">
        <ele>697.7</ele>
        <time>2016-07-24T10:40:16Z</time>
      </trkpt>
      <trkpt lat="42.41727" lon="0.08562">
        <ele>697.5</ele>
        <time>2016-07-24T10:40:18Z</time>
      </trkpt>
      <trkpt lat="42.41726" lon="0.08566">
        <ele>697.3</ele>
        <time>2016-07-24T10:40:20Z</time>
      </trkpt>
      <trkpt lat="42.41726" lon="0.08572">
        <ele>697</ele>
        <time>2016-07-24T10:40:22Z</time>
      </trkpt>
      <trkpt lat="42.41726" lon="0.08577">
        <ele>696.8</ele>
        <time>2016-07-24T10:40:24Z</time>
      </trkpt>
      <trkpt lat="42.41726" lon="0.08583">
        <ele>696.6</ele>
        <time>2016-07-24T10:40:26Z</time>
      </trkpt>
      <trkpt lat="42.41725" lon="0.0859">
        <ele>696.2</ele>
        <time>2016-07-24T10:40:28Z</time>
      </trkpt>
      <trkpt lat="42.41724" lon="0.08594">
        <ele>696</ele>
        <time>2016-07-24T10:40:29Z</time>
      </trkpt>
      <trkpt lat="42.41724" lon="0.08598">
        <ele>695.8</ele>
        <time>2016-07-24T10:40:30Z</time>
      </trkpt>
      <trkpt lat="42.41723" lon="0.08603">
        <ele>695.6</ele>
        <time>2016-07-24T10:40:32Z</time>
      </trkpt>
      <trkpt lat="42.41723" lon="0.08607">
        <ele>695.4</ele>
        <time>2016-07-24T10:40:44Z</time>
      </trkpt>
      <trkpt lat="42.41722" lon="0.08611">
        <ele>695.2</ele>
        <time>2016-07-24T10:40:53Z</time>
      </trkpt>
      <trkpt lat="42.41721" lon="0.08614">
        <ele>694.9</ele>
        <time>2016-07-24T10:40:56Z</time>
      </trkpt>
      <trkpt lat="42.4172" lon="0.08618">
        <ele>694.6</ele>
        <time>2016-07-24T10:41:00Z</time>
      </trkpt>
      <trkpt lat="42.4172" lon="0.08623">
        <ele>694.4</ele>
        <time>2016-07-24T10:41:07Z</time>
      </trkpt>
      <trkpt lat="42.41719" lon="0.08626">
        <ele>694.3</ele>
        <time>2016-07-24T10:41:11Z</time>
      </trkpt>
      <trkpt lat="42.41718" lon="0.0863">
        <ele>694.3</ele>
        <time>2016-07-24T10:41:16Z</time>
      </trkpt>
      <trkpt lat="42.41717" lon="0.08634">
        <ele>694.3</ele>
        <time>2016-07-24T10:41:21Z</time>
      </trkpt>
      <trkpt lat="42.41717" lon="0.08639">
        <ele>694.5</ele>
        <time>2016-07-24T10:41:26Z</time>
      </trkpt>
      <trkpt lat="42.41718" lon="0.08642">
        <ele>694.8</ele>
        <time>2016-07-24T10:41:31Z</time>
      </trkpt>
      <trkpt lat="42.41719" lon="0.08646">
        <ele>695</ele>
        <time>2016-07-24T10:41:38Z</time>
      </trkpt>
      <trkpt lat="42.41719" lon="0.08651">
        <ele>695.3</ele>
        <time>2016-07-24T10:41:40Z</time>
      </trkpt>
      <trkpt lat="42.4172" lon="0.08655">
        <ele>695.6</ele>
        <time>2016-07-24T10:41:42Z</time>
      </trkpt>
      <trkpt lat="42.41721" lon="0.08658">
        <ele>695.8</ele>
        <time>2016-07-24T10:41:44Z</time>
      </trkpt>
      <trkpt lat="42.41722" lon="0.08662">
        <ele>696.1</ele>
        <time>2016-07-24T10:41:46Z</time>
      </trkpt>
      <trkpt lat="42.41724" lon="0.08666">
        <ele>696.6</ele>
        <time>2016-07-24T10:41:48Z</time>
      </trkpt>
      <trkpt lat="42.41726" lon="0.0867">
        <ele>697</ele>
        <time>2016-07-24T10:41:50Z</time>
      </trkpt>
      <trkpt lat="42.41727" lon="0.08675">
        <ele>697.3</ele>
        <time>2016-07-24T10:41:52Z</time>
      </trkpt>
      <trkpt lat="42.41728" lon="0.0868">
        <ele>697.6</ele>
        <time>2016-07-24T10:41:54Z</time>
      </trkpt>
      <trkpt lat="42.41728" lon="0.08687">
        <ele>697.9</ele>
        <time>2016-07-24T10:41:56Z</time>
      </trkpt>
      <trkpt lat="42.41728" lon="0.08691">
        <ele>698</ele>
        <time>2016-07-24T10:41:57Z</time>
      </trkpt>
      <trkpt lat="42.41728" lon="0.08695">
        <ele>698.2</ele>
        <time>2016-07-24T10:41:58Z</time>
      </trkpt>
      <trkpt lat="42.41728" lon="0.08699">
        <ele>698.4</ele>
        <time>2016-07-24T10:41:59Z</time>
      </trkpt>
      <trkpt lat="42.41728" lon="0.08702">
        <ele>698.6</ele>
        <time>2016-07-24T10:42:00Z</time>
      </trkpt>
      <trkpt lat="42.4173" lon="0.08705">
        <ele>699</ele>
        <time>2016-07-24T10:42:01Z</time>
      </trkpt>
      <trkpt lat="42.41733" lon="0.08708">
        <ele>699.5</ele>
        <time>2016-07-24T10:42:02Z</time>
      </trkpt>
      <trkpt lat="42.41736" lon="0.0871">
        <ele>699.9</ele>
        <time>2016-07-24T10:42:03Z</time>
      </trkpt>
      <trkpt lat="42.41739" lon="0.08713">
        <ele>700.3</ele>
        <time>2016-07-24T10:42:04Z</time>
      </trkpt>
      <trkpt lat="42.41743" lon="0.08714">
        <ele>700.8</ele>
        <time>2016-07-24T10:42:05Z</time>
      </trkpt>
      <trkpt lat="42.41746" lon="0.08715">
        <ele>701.2</ele>
        <time>2016-07-24T10:42:06Z</time>
      </trkpt>
      <trkpt lat="42.41749" lon="0.08717">
        <ele>701.6</ele>
        <time>2016-07-24T10:42:07Z</time>
      </trkpt>
      <trkpt lat="42.41751" lon="0.08719">
        <ele>701.9</ele>
        <time>2016-07-24T10:42:08Z</time>
      </trkpt>
      <trkpt lat="42.41753" lon="0.08723">
        <ele>702.1</ele>
        <time>2016-07-24T10:42:09Z</time>
      </trkpt>
      <trkpt lat="42.41754" lon="0.08727">
        <ele>702.2</ele>
        <time>2016-07-24T10:42:10Z</time>
      </trkpt>
      <trkpt lat="42.41755" lon="0.08731">
        <ele>702.2</ele>
        <time>2016-07-24T10:42:11Z</time>
      </trkpt>
      <trkpt lat="42.41755" lon="0.08735">
        <ele>702</ele>
        <time>2016-07-24T10:42:12Z</time>
      </trkpt>
      <trkpt lat="42.41754" lon="0.0874">
        <ele>701.8</ele>
        <time>2016-07-24T10:42:14Z</time>
      </trkpt>
      <trkpt lat="42.41755" lon="0.08743">
        <ele>702</ele>
        <time>2016-07-24T10:42:17Z</time>
      </trkpt>
      <trkpt lat="42.41758" lon="0.08741">
        <ele>702.5</ele>
        <time>2016-07-24T10:42:19Z</time>
      </trkpt>
      <trkpt lat="42.4176" lon="0.08737">
        <ele>702.9</ele>
        <time>2016-07-24T10:42:21Z</time>
      </trkpt>
      <trkpt lat="42.41763" lon="0.08736">
        <ele>703.3</ele>
        <time>2016-07-24T10:42:23Z</time>
      </trkpt>
      <trkpt lat="42.41764" lon="0.0874">
        <ele>703.4</ele>
        <time>2016-07-24T10:42:25Z</time>
      </trkpt>
      <trkpt lat="42.41763" lon="0.08744">
        <ele>703.1</ele>
        <time>2016-07-24T10:42:26Z</time>
      </trkpt>
      <trkpt lat="42.41761" lon="0.08747">
        <ele>702.7</ele>
        <time>2016-07-24T10:42:27Z</time>
      </trkpt>
      <trkpt lat="42.41758" lon="0.0875">
        <ele>702.3</ele>
        <time>2016-07-24T10:42:28Z</time>
      </trkpt>
      <trkpt lat="42.41755" lon="0.08753">
        <ele>701.8</ele>
        <time>2016-07-24T10:42:29Z</time>
      </trkpt>
      <trkpt lat="42.41753" lon="0.08757">
        <ele>701.3</ele>
        <time>2016-07-24T10:42:30Z</time>
      </trkpt>
      <trkpt lat="42.41751" lon="0.08761">
        <ele>700.9</ele>
        <time>2016-07-24T10:42:31Z</time>
      </trkpt>
      <trkpt lat="42.41749" lon="0.08766">
        <ele>700.5</ele>
        <time>2016-07-24T10:42:32Z</time>
      </trkpt>
      <trkpt lat="42.41748" lon="0.0877">
        <ele>700.2</ele>
        <time>2016-07-24T10:42:33Z</time>
      </trkpt>
      <trkpt lat="42.41746" lon="0.08774">
        <ele>699.8</ele>
        <time>2016-07-24T10:42:34Z</time>
      </trkpt>
      <trkpt lat="42.41744" lon="0.08778">
        <ele>699.3</ele>
        <time>2016-07-24T10:42:35Z</time>
      </trkpt>
      <trkpt lat="42.41741" lon="0.08782">
        <ele>698.8</ele>
        <time>2016-07-24T10:42:36Z</time>
      </trkpt>
      <trkpt lat="42.4174" lon="0.08786">
        <ele>698.4</ele>
        <time>2016-07-24T10:42:37Z</time>
      </trkpt>
      <trkpt lat="42.41739" lon="0.08791">
        <ele>698.1</ele>
        <time>2016-07-24T10:42:38Z</time>
      </trkpt>
      <trkpt lat="42.41738" lon="0.08795">
        <ele>698.1</ele>
        <time>2016-07-24T10:42:39Z</time>
      </trkpt>
      <trkpt lat="42.41738" lon="0.088">
        <ele>698.2</ele>
        <time>2016-07-24T10:42:40Z</time>
      </trkpt>
      <trkpt lat="42.41737" lon="0.08804">
        <ele>698.1</ele>
        <time>2016-07-24T10:42:41Z</time>
      </trkpt>
      <trkpt lat="42.41735" lon="0.08808">
        <ele>698</ele>
        <time>2016-07-24T10:42:42Z</time>
      </trkpt>
      <trkpt lat="42.41733" lon="0.08812">
        <ele>697.7</ele>
        <time>2016-07-24T10:42:43Z</time>
      </trkpt>
      <trkpt lat="42.41732" lon="0.08815">
        <ele>697.5</ele>
        <time>2016-07-24T10:42:44Z</time>
      </trkpt>
      <trkpt lat="42.4173" lon="0.08819">
        <ele>697.2</ele>
        <time>2016-07-24T10:42:45Z</time>
      </trkpt>
      <trkpt lat="42.41729" lon="0.08823">
        <ele>697</ele>
        <time>2016-07-24T10:42:46Z</time>
      </trkpt>
      <trkpt lat="42.41727" lon="0.08827">
        <ele>696.7</ele>
        <time>2016-07-24T10:42:47Z</time>
      </trkpt>
      <trkpt lat="42.41725" lon="0.08831">
        <ele>696.4</ele>
        <time>2016-07-24T10:42:48Z</time>
      </trkpt>
      <trkpt lat="42.41722" lon="0.08836">
        <ele>695.9</ele>
        <time>2016-07-24T10:42:49Z</time>
      </trkpt>
      <trkpt lat="42.4172" lon="0.0884">
        <ele>695.5</ele>
        <time>2016-07-24T10:42:50Z</time>
      </trkpt>
      <trkpt lat="42.41718" lon="0.08845">
        <ele>695.1</ele>
        <time>2016-07-24T10:42:51Z</time>
      </trkpt>
      <trkpt lat="42.41716" lon="0.08851">
        <ele>694.8</ele>
        <time>2016-07-24T10:42:52Z</time>
      </trkpt>
      <trkpt lat="42.41714" lon="0.08856">
        <ele>694.4</ele>
        <time>2016-07-24T10:42:53Z</time>
      </trkpt>
      <trkpt lat="42.41713" lon="0.08861">
        <ele>694</ele>
        <time>2016-07-24T10:42:54Z</time>
      </trkpt>
      <trkpt lat="42.41711" lon="0.08867">
        <ele>693.6</ele>
        <time>2016-07-24T10:42:55Z</time>
      </trkpt>
      <trkpt lat="42.41709" lon="0.08873">
        <ele>693.1</ele>
        <time>2016-07-24T10:42:56Z</time>
      </trkpt>
      <trkpt lat="42.41707" lon="0.08878">
        <ele>693</ele>
        <time>2016-07-24T10:42:57Z</time>
      </trkpt>
      <trkpt lat="42.41704" lon="0.08883">
        <ele>693</ele>
        <time>2016-07-24T10:42:58Z</time>
      </trkpt>
      <trkpt lat="42.41702" lon="0.08888">
        <ele>693</ele>
        <time>2016-07-24T10:42:59Z</time>
      </trkpt>
      <trkpt lat="42.417" lon="0.08894">
        <ele>693.1</ele>
        <time>2016-07-24T10:43:00Z</time>
      </trkpt>
      <trkpt lat="42.41698" lon="0.08899">
        <ele>693.2</ele>
        <time>2016-07-24T10:43:01Z</time>
      </trkpt>
      <trkpt lat="42.41697" lon="0.08904">
        <ele>693.5</ele>
        <time>2016-07-24T10:43:02Z</time>
      </trkpt>
      <trkpt lat="42.41697" lon="0.08909">
        <ele>693.8</ele>
        <time>2016-07-24T10:43:03Z</time>
      </trkpt>
      <trkpt lat="42.41697" lon="0.08915">
        <ele>694.3</ele>
        <time>2016-07-24T10:43:04Z</time>
      </trkpt>
      <trkpt lat="42.41697" lon="0.0892">
        <ele>694.8</ele>
        <time>2016-07-24T10:43:05Z</time>
      </trkpt>
      <trkpt lat="42.41697" lon="0.08925">
        <ele>695.2</ele>
        <time>2016-07-24T10:43:06Z</time>
      </trkpt>
      <trkpt lat="42.41697" lon="0.0893">
        <ele>695.7</ele>
        <time>2016-07-24T10:43:07Z</time>
      </trkpt>
      <trkpt lat="42.41697" lon="0.08935">
        <ele>696.1</ele>
        <time>2016-07-24T10:43:08Z</time>
      </trkpt>
      <trkpt lat="42.41697" lon="0.0894">
        <ele>696.5</ele>
        <time>2016-07-24T10:43:09Z</time>
      </trkpt>
      <trkpt lat="42.41697" lon="0.08944">
        <ele>696.8</ele>
        <time>2016-07-24T10:43:10Z</time>
      </trkpt>
      <trkpt lat="42.41697" lon="0.08949">
        <ele>697.2</ele>
        <time>2016-07-24T10:43:11Z</time>
      </trkpt>
      <trkpt lat="42.41697" lon="0.08953">
        <ele>697.5</ele>
        <time>2016-07-24T10:43:12Z</time>
      </trkpt>
      <trkpt lat="42.41697" lon="0.08957">
        <ele>697.8</ele>
        <time>2016-07-24T10:43:13Z</time>
      </trkpt>
      <trkpt lat="42.41696" lon="0.08961">
        <ele>698</ele>
        <time>2016-07-24T10:43:14Z</time>
      </trkpt>
      <trkpt lat="42.41694" lon="0.08966">
        <ele>698</ele>
        <time>2016-07-24T10:43:15Z</time>
      </trkpt>
      <trkpt lat="42.41691" lon="0.08971">
        <ele>697.9</ele>
        <time>2016-07-24T10:43:16Z</time>
      </trkpt>
      <trkpt lat="42.41688" lon="0.08975">
        <ele>697.7</ele>
        <time>2016-07-24T10:43:17Z</time>
      </trkpt>
      <trkpt lat="42.41685" lon="0.08981">
        <ele>697.6</ele>
        <time>2016-07-24T10:43:18Z</time>
      </trkpt>
      <trkpt lat="42.41682" lon="0.08986">
        <ele>697.7</ele>
        <time>2016-07-24T10:43:19Z</time>
      </trkpt>
      <trkpt lat="42.41681" lon="0.08992">
        <ele>697.9</ele>
        <time>2016-07-24T10:43:20Z</time>
      </trkpt>
      <trkpt lat="42.41679" lon="0.08998">
        <ele>698.2</ele>
        <time>2016-07-24T10:43:21Z</time>
      </trkpt>
      <trkpt lat="42.41678" lon="0.09003">
        <ele>698.5</ele>
        <time>2016-07-24T10:43:22Z</time>
      </trkpt>
      <trkpt lat="42.41675" lon="0.09008">
        <ele>698.5</ele>
        <time>2016-07-24T10:43:23Z</time>
      </trkpt>
      <trkpt lat="42.41671" lon="0.0901">
        <ele>698.2</ele>
        <time>2016-07-24T10:43:24Z</time>
      </trkpt>
      <trkpt lat="42.41667" lon="0.09011">
        <ele>697.5</ele>
        <time>2016-07-24T10:43:25Z</time>
      </trkpt>
      <trkpt lat="42.41662" lon="0.0901">
        <ele>696.7</ele>
        <time>2016-07-24T10:43:26Z</time>
      </trkpt>
      <trkpt lat="42.41657" lon="0.0901">
        <ele>695.9</ele>
        <time>2016-07-24T10:43:27Z</time>
      </trkpt>
      <trkpt lat="42.41652" lon="0.09011">
        <ele>695.3</ele>
        <time>2016-07-24T10:43:28Z</time>
      </trkpt>
      <trkpt lat="42.41647" lon="0.09014">
        <ele>695</ele>
        <time>2016-07-24T10:43:29Z</time>
      </trkpt>
      <trkpt lat="42.41643" lon="0.09018">
        <ele>694.8</ele>
        <time>2016-07-24T10:43:30Z</time>
      </trkpt>
      <trkpt lat="42.4164" lon="0.09022">
        <ele>694.7</ele>
        <time>2016-07-24T10:43:31Z</time>
      </trkpt>
      <trkpt lat="42.41636" lon="0.09025">
        <ele>694.5</ele>
        <time>2016-07-24T10:43:32Z</time>
      </trkpt>
      <trkpt lat="42.41631" lon="0.09027">
        <ele>694.1</ele>
        <time>2016-07-24T10:43:33Z</time>
      </trkpt>
      <trkpt lat="42.41627" lon="0.09027">
        <ele>693.4</ele>
        <time>2016-07-24T10:43:34Z</time>
      </trkpt>
      <trkpt lat="42.41622" lon="0.09025">
        <ele>692.6</ele>
        <time>2016-07-24T10:43:35Z</time>
      </trkpt>
      <trkpt lat="42.41618" lon="0.09023">
        <ele>691.7</ele>
        <time>2016-07-24T10:43:36Z</time>
      </trkpt>
      <trkpt lat="42.41614" lon="0.0902">
        <ele>690.8</ele>
        <time>2016-07-24T10:43:37Z</time>
      </trkpt>
      <trkpt lat="42.41609" lon="0.09019">
        <ele>689.9</ele>
        <time>2016-07-24T10:43:38Z</time>
      </trkpt>
      <trkpt lat="42.41605" lon="0.09018">
        <ele>689.3</ele>
        <time>2016-07-24T10:43:39Z</time>
      </trkpt>
      <trkpt lat="42.41602" lon="0.09018">
        <ele>688.7</ele>
        <time>2016-07-24T10:43:40Z</time>
      </trkpt>
      <trkpt lat="42.41598" lon="0.0902">
        <ele>688.3</ele>
        <time>2016-07-24T10:43:41Z</time>
      </trkpt>
      <trkpt lat="42.41595" lon="0.09022">
        <ele>688.1</ele>
        <time>2016-07-24T10:43:42Z</time>
      </trkpt>
      <trkpt lat="42.41592" lon="0.09023">
        <ele>687.9</ele>
        <time>2016-07-24T10:43:43Z</time>
      </trkpt>
      <trkpt lat="42.41589" lon="0.09026">
        <ele>687.7</ele>
        <time>2016-07-24T10:43:45Z</time>
      </trkpt>
      <trkpt lat="42.41586" lon="0.09027">
        <ele>687.4</ele>
        <time>2016-07-24T10:43:47Z</time>
      </trkpt>
      <trkpt lat="42.41583" lon="0.0903">
        <ele>687.2</ele>
        <time>2016-07-24T10:43:49Z</time>
      </trkpt>
      <trkpt lat="42.41579" lon="0.09034">
        <ele>687.1</ele>
        <time>2016-07-24T10:43:51Z</time>
      </trkpt>
      <trkpt lat="42.41578" lon="0.09037">
        <ele>687.1</ele>
        <time>2016-07-24T10:43:52Z</time>
      </trkpt>
      <trkpt lat="42.41576" lon="0.0904">
        <ele>687.1</ele>
        <time>2016-07-24T10:43:53Z</time>
      </trkpt>
      <trkpt lat="42.41574" lon="0.09044">
        <ele>687.3</ele>
        <time>2016-07-24T10:43:54Z</time>
      </trkpt>
      <trkpt lat="42.41573" lon="0.09048">
        <ele>687.6</ele>
        <time>2016-07-24T10:43:55Z</time>
      </trkpt>
      <trkpt lat="42.41572" lon="0.09052">
        <ele>687.8</ele>
        <time>2016-07-24T10:43:56Z</time>
      </trkpt>
      <trkpt lat="42.41571" lon="0.09057">
        <ele>688.1</ele>
        <time>2016-07-24T10:43:57Z</time>
      </trkpt>
      <trkpt lat="42.4157" lon="0.09061">
        <ele>688.4</ele>
        <time>2016-07-24T10:43:58Z</time>
      </trkpt>
      <trkpt lat="42.41568" lon="0.09066">
        <ele>688.7</ele>
        <time>2016-07-24T10:43:59Z</time>
      </trkpt>
      <trkpt lat="42.41566" lon="0.0907">
        <ele>688.9</ele>
        <time>2016-07-24T10:44:00Z</time>
      </trkpt>
      <trkpt lat="42.41565" lon="0.09075">
        <ele>689</ele>
        <time>2016-07-24T10:44:01Z</time>
      </trkpt>
      <trkpt lat="42.41563" lon="0.09079">
        <ele>689.2</ele>
        <time>2016-07-24T10:44:02Z</time>
      </trkpt>
      <trkpt lat="42.41561" lon="0.09084">
        <ele>689.4</ele>
        <time>2016-07-24T10:44:03Z</time>
      </trkpt>
      <trkpt lat="42.4156" lon="0.09088">
        <ele>689.7</ele>
        <time>2016-07-24T10:44:04Z</time>
      </trkpt>
      <trkpt lat="42.41559" lon="0.09092">
        <ele>690</ele>
        <time>2016-07-24T10:44:05Z</time>
      </trkpt>
      <trkpt lat="42.41557" lon="0.09097">
        <ele>690.2</ele>
        <time>2016-07-24T10:44:06Z</time>
      </trkpt>
      <trkpt lat="42.41556" lon="0.09101">
        <ele>690.4</ele>
        <time>2016-07-24T10:44:07Z</time>
      </trkpt>
      <trkpt lat="42.41554" lon="0.09105">
        <ele>690.6</ele>
        <time>2016-07-24T10:44:08Z</time>
      </trkpt>
      <trkpt lat="42.41553" lon="0.09109">
        <ele>690.8</ele>
        <time>2016-07-24T10:44:09Z</time>
      </trkpt>
      <trkpt lat="42.41551" lon="0.09113">
        <ele>691.1</ele>
        <time>2016-07-24T10:44:10Z</time>
      </trkpt>
      <trkpt lat="42.4155" lon="0.09117">
        <ele>691.3</ele>
        <time>2016-07-24T10:44:11Z</time>
      </trkpt>
      <trkpt lat="42.41549" lon="0.09121">
        <ele>691.6</ele>
        <time>2016-07-24T10:44:12Z</time>
      </trkpt>
      <trkpt lat="42.41547" lon="0.09125">
        <ele>691.8</ele>
        <time>2016-07-24T10:44:13Z</time>
      </trkpt>
      <trkpt lat="42.41546" lon="0.09129">
        <ele>691.9</ele>
        <time>2016-07-24T10:44:14Z</time>
      </trkpt>
      <trkpt lat="42.41545" lon="0.09133">
        <ele>692</ele>
        <time>2016-07-24T10:44:15Z</time>
      </trkpt>
      <trkpt lat="42.41544" lon="0.09137">
        <ele>692.2</ele>
        <time>2016-07-24T10:44:16Z</time>
      </trkpt>
      <trkpt lat="42.41542" lon="0.09141">
        <ele>692.3</ele>
        <time>2016-07-24T10:44:17Z</time>
      </trkpt>
      <trkpt lat="42.41541" lon="0.09145">
        <ele>692.4</ele>
        <time>2016-07-24T10:44:18Z</time>
      </trkpt>
      <trkpt lat="42.4154" lon="0.09149">
        <ele>692.5</ele>
        <time>2016-07-24T10:44:19Z</time>
      </trkpt>
      <trkpt lat="42.41539" lon="0.09153">
        <ele>692.6</ele>
        <time>2016-07-24T10:44:20Z</time>
      </trkpt>
      <trkpt lat="42.41537" lon="0.09158">
        <ele>692.8</ele>
        <time>2016-07-24T10:44:21Z</time>
      </trkpt>
      <trkpt lat="42.41536" lon="0.09162">
        <ele>692.9</ele>
        <time>2016-07-24T10:44:22Z</time>
      </trkpt>
      <trkpt lat="42.41535" lon="0.09165">
        <ele>693</ele>
        <time>2016-07-24T10:44:23Z</time>
      </trkpt>
      <trkpt lat="42.41534" lon="0.09169">
        <ele>693</ele>
        <time>2016-07-24T10:44:24Z</time>
      </trkpt>
      <trkpt lat="42.41532" lon="0.09173">
        <ele>693.1</ele>
        <time>2016-07-24T10:44:25Z</time>
      </trkpt>
      <trkpt lat="42.41531" lon="0.09177">
        <ele>693.3</ele>
        <time>2016-07-24T10:44:26Z</time>
      </trkpt>
      <trkpt lat="42.41531" lon="0.09181">
        <ele>693.4</ele>
        <time>2016-07-24T10:44:27Z</time>
      </trkpt>
      <trkpt lat="42.4153" lon="0.09185">
        <ele>693.6</ele>
        <time>2016-07-24T10:44:28Z</time>
      </trkpt>
      <trkpt lat="42.4153" lon="0.0919">
        <ele>693.9</ele>
        <time>2016-07-24T10:44:29Z</time>
      </trkpt>
      <trkpt lat="42.4153" lon="0.09194">
        <ele>694.2</ele>
        <time>2016-07-24T10:44:30Z</time>
      </trkpt>
      <trkpt lat="42.41531" lon="0.09199">
        <ele>694.7</ele>
        <time>2016-07-24T10:44:31Z</time>
      </trkpt>
      <trkpt lat="42.41533" lon="0.09203">
        <ele>695.2</ele>
        <time>2016-07-24T10:44:32Z</time>
      </trkpt>
      <trkpt lat="42.41534" lon="0.09207">
        <ele>695.7</ele>
        <time>2016-07-24T10:44:33Z</time>
      </trkpt>
      <trkpt lat="42.41536" lon="0.0921">
        <ele>696.1</ele>
        <time>2016-07-24T10:44:34Z</time>
      </trkpt>
      <trkpt lat="42.41538" lon="0.09214">
        <ele>696.3</ele>
        <time>2016-07-24T10:44:35Z</time>
      </trkpt>
      <trkpt lat="42.4154" lon="0.09217">
        <ele>696.5</ele>
        <time>2016-07-24T10:44:36Z</time>
      </trkpt>
      <trkpt lat="42.41542" lon="0.0922">
        <ele>696.8</ele>
        <time>2016-07-24T10:44:37Z</time>
      </trkpt>
      <trkpt lat="42.41545" lon="0.09223">
        <ele>697</ele>
        <time>2016-07-24T10:44:38Z</time>
      </trkpt>
      <trkpt lat="42.41547" lon="0.09226">
        <ele>697.2</ele>
        <time>2016-07-24T10:44:39Z</time>
      </trkpt>
      <trkpt lat="42.4155" lon="0.09229">
        <ele>697.5</ele>
        <time>2016-07-24T10:44:40Z</time>
      </trkpt>
      <trkpt lat="42.41553" lon="0.09233">
        <ele>697.8</ele>
        <time>2016-07-24T10:44:41Z</time>
      </trkpt>
      <trkpt lat="42.41556" lon="0.09236">
        <ele>698</ele>
        <time>2016-07-24T10:44:42Z</time>
      </trkpt>
      <trkpt lat="42.41559" lon="0.09239">
        <ele>698.3</ele>
        <time>2016-07-24T10:44:43Z</time>
      </trkpt>
      <trkpt lat="42.41561" lon="0.09242">
        <ele>698.5</ele>
        <time>2016-07-24T10:44:44Z</time>
      </trkpt>
      <trkpt lat="42.41564" lon="0.09246">
        <ele>698.7</ele>
        <time>2016-07-24T10:44:45Z</time>
      </trkpt>
      <trkpt lat="42.41566" lon="0.09249">
        <ele>698.9</ele>
        <time>2016-07-24T10:44:46Z</time>
      </trkpt>
      <trkpt lat="42.41568" lon="0.09253">
        <ele>699.1</ele>
        <time>2016-07-24T10:44:47Z</time>
      </trkpt>
      <trkpt lat="42.4157" lon="0.09257">
        <ele>699.3</ele>
        <time>2016-07-24T10:44:48Z</time>
      </trkpt>
      <trkpt lat="42.41572" lon="0.09261">
        <ele>699.4</ele>
        <time>2016-07-24T10:44:49Z</time>
      </trkpt>
      <trkpt lat="42.41575" lon="0.09266">
        <ele>699.6</ele>
        <time>2016-07-24T10:44:50Z</time>
      </trkpt>
      <trkpt lat="42.41578" lon="0.0927">
        <ele>699.8</ele>
        <time>2016-07-24T10:44:51Z</time>
      </trkpt>
      <trkpt lat="42.41581" lon="0.09274">
        <ele>700.1</ele>
        <time>2016-07-24T10:44:52Z</time>
      </trkpt>
      <trkpt lat="42.41584" lon="0.09278">
        <ele>700.3</ele>
        <time>2016-07-24T10:44:53Z</time>
      </trkpt>
      <trkpt lat="42.41587" lon="0.09282">
        <ele>700.6</ele>
        <time>2016-07-24T10:44:54Z</time>
      </trkpt>
      <trkpt lat="42.41589" lon="0.09286">
        <ele>700.9</ele>
        <time>2016-07-24T10:44:55Z</time>
      </trkpt>
      <trkpt lat="42.41592" lon="0.0929">
        <ele>701.1</ele>
        <time>2016-07-24T10:44:56Z</time>
      </trkpt>
      <trkpt lat="42.41595" lon="0.09294">
        <ele>701.4</ele>
        <time>2016-07-24T10:44:57Z</time>
      </trkpt>
      <trkpt lat="42.41597" lon="0.09298">
        <ele>701.6</ele>
        <time>2016-07-24T10:44:58Z</time>
      </trkpt>
      <trkpt lat="42.41599" lon="0.09302">
        <ele>701.9</ele>
        <time>2016-07-24T10:44:59Z</time>
      </trkpt>
      <trkpt lat="42.41601" lon="0.09306">
        <ele>702.1</ele>
        <time>2016-07-24T10:45:00Z</time>
      </trkpt>
      <trkpt lat="42.41602" lon="0.0931">
        <ele>702.3</ele>
        <time>2016-07-24T10:45:01Z</time>
      </trkpt>
      <trkpt lat="42.41604" lon="0.09314">
        <ele>702.5</ele>
        <time>2016-07-24T10:45:02Z</time>
      </trkpt>
      <trkpt lat="42.41605" lon="0.09317">
        <ele>702.6</ele>
        <time>2016-07-24T10:45:03Z</time>
      </trkpt>
      <trkpt lat="42.41607" lon="0.09321">
        <ele>702.7</ele>
        <time>2016-07-24T10:45:04Z</time>
      </trkpt>
      <trkpt lat="42.41608" lon="0.09325">
        <ele>702.9</ele>
        <time>2016-07-24T10:45:05Z</time>
      </trkpt>
      <trkpt lat="42.41609" lon="0.09329">
        <ele>703</ele>
        <time>2016-07-24T10:45:06Z</time>
      </trkpt>
      <trkpt lat="42.41611" lon="0.09333">
        <ele>703.1</ele>
        <time>2016-07-24T10:45:07Z</time>
      </trkpt>
      <trkpt lat="42.41612" lon="0.09337">
        <ele>703.3</ele>
        <time>2016-07-24T10:45:08Z</time>
      </trkpt>
      <trkpt lat="42.41614" lon="0.09341">
        <ele>703.4</ele>
        <time>2016-07-24T10:45:09Z</time>
      </trkpt>
      <trkpt lat="42.41615" lon="0.09346">
        <ele>703.5</ele>
        <time>2016-07-24T10:45:10Z</time>
      </trkpt>
      <trkpt lat="42.41617" lon="0.0935">
        <ele>703.6</ele>
        <time>2016-07-24T10:45:11Z</time>
      </trkpt>
      <trkpt lat="42.41618" lon="0.09355">
        <ele>703.7</ele>
        <time>2016-07-24T10:45:12Z</time>
      </trkpt>
      <trkpt lat="42.41619" lon="0.09359">
        <ele>703.7</ele>
        <time>2016-07-24T10:45:13Z</time>
      </trkpt>
      <trkpt lat="42.4162" lon="0.09364">
        <ele>703.8</ele>
        <time>2016-07-24T10:45:14Z</time>
      </trkpt>
      <trkpt lat="42.41621" lon="0.09369">
        <ele>703.8</ele>
        <time>2016-07-24T10:45:15Z</time>
      </trkpt>
      <trkpt lat="42.41621" lon="0.09374">
        <ele>703.7</ele>
        <time>2016-07-24T10:45:16Z</time>
      </trkpt>
      <trkpt lat="42.41621" lon="0.09379">
        <ele>703.9</ele>
        <time>2016-07-24T10:45:17Z</time>
      </trkpt>
      <trkpt lat="42.41621" lon="0.09383">
        <ele>704.2</ele>
        <time>2016-07-24T10:45:18Z</time>
      </trkpt>
      <trkpt lat="42.41621" lon="0.09388">
        <ele>704.4</ele>
        <time>2016-07-24T10:45:19Z</time>
      </trkpt>
      <trkpt lat="42.4162" lon="0.09393">
        <ele>704.6</ele>
        <time>2016-07-24T10:45:20Z</time>
      </trkpt>
      <trkpt lat="42.4162" lon="0.09397">
        <ele>704.8</ele>
        <time>2016-07-24T10:45:21Z</time>
      </trkpt>
      <trkpt lat="42.41619" lon="0.09402">
        <ele>705</ele>
        <time>2016-07-24T10:45:22Z</time>
      </trkpt>
      <trkpt lat="42.41618" lon="0.09407">
        <ele>705.2</ele>
        <time>2016-07-24T10:45:23Z</time>
      </trkpt>
      <trkpt lat="42.41618" lon="0.09411">
        <ele>705.4</ele>
        <time>2016-07-24T10:45:24Z</time>
      </trkpt>
      <trkpt lat="42.41617" lon="0.09416">
        <ele>705.7</ele>
        <time>2016-07-24T10:45:25Z</time>
      </trkpt>
      <trkpt lat="42.41617" lon="0.09421">
        <ele>705.9</ele>
        <time>2016-07-24T10:45:26Z</time>
      </trkpt>
      <trkpt lat="42.41616" lon="0.09425">
        <ele>706.2</ele>
        <time>2016-07-24T10:45:27Z</time>
      </trkpt>
      <trkpt lat="42.41616" lon="0.0943">
        <ele>706.4</ele>
        <time>2016-07-24T10:45:28Z</time>
      </trkpt>
      <trkpt lat="42.41616" lon="0.09434">
        <ele>706.6</ele>
        <time>2016-07-24T10:45:29Z</time>
      </trkpt>
      <trkpt lat="42.41615" lon="0.09438">
        <ele>706.9</ele>
        <time>2016-07-24T10:45:30Z</time>
      </trkpt>
      <trkpt lat="42.41615" lon="0.09442">
        <ele>707.1</ele>
        <time>2016-07-24T10:45:31Z</time>
      </trkpt>
      <trkpt lat="42.41615" lon="0.09449">
        <ele>707.5</ele>
        <time>2016-07-24T10:45:33Z</time>
      </trkpt>
      <trkpt lat="42.41614" lon="0.09456">
        <ele>707.9</ele>
        <time>2016-07-24T10:45:35Z</time>
      </trkpt>
      <trkpt lat="42.41614" lon="0.09463">
        <ele>708.5</ele>
        <time>2016-07-24T10:45:37Z</time>
      </trkpt>
      <trkpt lat="42.41614" lon="0.09469">
        <ele>709.2</ele>
        <time>2016-07-24T10:45:39Z</time>
      </trkpt>
      <trkpt lat="42.41612" lon="0.09475">
        <ele>709.9</ele>
        <time>2016-07-24T10:45:41Z</time>
      </trkpt>
      <trkpt lat="42.41609" lon="0.0948">
        <ele>710.4</ele>
        <time>2016-07-24T10:45:43Z</time>
      </trkpt>
      <trkpt lat="42.41606" lon="0.09485">
        <ele>711</ele>
        <time>2016-07-24T10:45:45Z</time>
      </trkpt>
      <trkpt lat="42.41603" lon="0.09491">
        <ele>711.7</ele>
        <time>2016-07-24T10:45:47Z</time>
      </trkpt>
      <trkpt lat="42.41601" lon="0.09494">
        <ele>712.1</ele>
        <time>2016-07-24T10:45:48Z</time>
      </trkpt>
      <trkpt lat="42.416" lon="0.09498">
        <ele>712.5</ele>
        <time>2016-07-24T10:45:49Z</time>
      </trkpt>
      <trkpt lat="42.41598" lon="0.09501">
        <ele>713</ele>
        <time>2016-07-24T10:45:50Z</time>
      </trkpt>
      <trkpt lat="42.41597" lon="0.09505">
        <ele>713.4</ele>
        <time>2016-07-24T10:45:51Z</time>
      </trkpt>
      <trkpt lat="42.41596" lon="0.09508">
        <ele>713.8</ele>
        <time>2016-07-24T10:45:52Z</time>
      </trkpt>
      <trkpt lat="42.41595" lon="0.09512">
        <ele>714.3</ele>
        <time>2016-07-24T10:45:53Z</time>
      </trkpt>
      <trkpt lat="42.41593" lon="0.09516">
        <ele>714.7</ele>
        <time>2016-07-24T10:45:54Z</time>
      </trkpt>
      <trkpt lat="42.41591" lon="0.0952">
        <ele>715.2</ele>
        <time>2016-07-24T10:45:55Z</time>
      </trkpt>
      <trkpt lat="42.41589" lon="0.09524">
        <ele>715.7</ele>
        <time>2016-07-24T10:45:56Z</time>
      </trkpt>
      <trkpt lat="42.41587" lon="0.09527">
        <ele>716.2</ele>
        <time>2016-07-24T10:45:57Z</time>
      </trkpt>
      <trkpt lat="42.41585" lon="0.09531">
        <ele>716.7</ele>
        <time>2016-07-24T10:45:58Z</time>
      </trkpt>
      <trkpt lat="42.41583" lon="0.09535">
        <ele>717.2</ele>
        <time>2016-07-24T10:45:59Z</time>
      </trkpt>
      <trkpt lat="42.41581" lon="0.09538">
        <ele>717.6</ele>
        <time>2016-07-24T10:46:00Z</time>
      </trkpt>
      <trkpt lat="42.41579" lon="0.09542">
        <ele>718.1</ele>
        <time>2016-07-24T10:46:01Z</time>
      </trkpt>
      <trkpt lat="42.41577" lon="0.09546">
        <ele>718.4</ele>
        <time>2016-07-24T10:46:02Z</time>
      </trkpt>
      <trkpt lat="42.41575" lon="0.09549">
        <ele>718.6</ele>
        <time>2016-07-24T10:46:03Z</time>
      </trkpt>
      <trkpt lat="42.41573" lon="0.09553">
        <ele>718.9</ele>
        <time>2016-07-24T10:46:04Z</time>
      </trkpt>
      <trkpt lat="42.41571" lon="0.09556">
        <ele>719.1</ele>
        <time>2016-07-24T10:46:05Z</time>
      </trkpt>
      <trkpt lat="42.41569" lon="0.09559">
        <ele>719.3</ele>
        <time>2016-07-24T10:46:06Z</time>
      </trkpt>
      <trkpt lat="42.41567" lon="0.09562">
        <ele>719.5</ele>
        <time>2016-07-24T10:46:07Z</time>
      </trkpt>
      <trkpt lat="42.41565" lon="0.09565">
        <ele>719.7</ele>
        <time>2016-07-24T10:46:08Z</time>
      </trkpt>
      <trkpt lat="42.41563" lon="0.09567">
        <ele>719.8</ele>
        <time>2016-07-24T10:46:09Z</time>
      </trkpt>
      <trkpt lat="42.41561" lon="0.0957">
        <ele>719.9</ele>
        <time>2016-07-24T10:46:10Z</time>
      </trkpt>
      <trkpt lat="42.41557" lon="0.09574">
        <ele>720.2</ele>
        <time>2016-07-24T10:46:12Z</time>
      </trkpt>
      <trkpt lat="42.41554" lon="0.09577">
        <ele>720.3</ele>
        <time>2016-07-24T10:46:13Z</time>
      </trkpt>
      <trkpt lat="42.4155" lon="0.0958">
        <ele>720.4</ele>
        <time>2016-07-24T10:46:15Z</time>
      </trkpt>
      <trkpt lat="42.41545" lon="0.09583">
        <ele>720.5</ele>
        <time>2016-07-24T10:46:17Z</time>
      </trkpt>
      <trkpt lat="42.41543" lon="0.09586">
        <ele>720.6</ele>
        <time>2016-07-24T10:46:18Z</time>
      </trkpt>
      <trkpt lat="42.41539" lon="0.0959">
        <ele>720.5</ele>
        <time>2016-07-24T10:46:20Z</time>
      </trkpt>
      <trkpt lat="42.41535" lon="0.09594">
        <ele>720.3</ele>
        <time>2016-07-24T10:46:22Z</time>
      </trkpt>
      <trkpt lat="42.41533" lon="0.09599">
        <ele>720.2</ele>
        <time>2016-07-24T10:46:24Z</time>
      </trkpt>
      <trkpt lat="42.41532" lon="0.09605">
        <ele>720.3</ele>
        <time>2016-07-24T10:46:26Z</time>
      </trkpt>
      <trkpt lat="42.41531" lon="0.09611">
        <ele>720.4</ele>
        <time>2016-07-24T10:46:28Z</time>
      </trkpt>
      <trkpt lat="42.41532" lon="0.09617">
        <ele>720.7</ele>
        <time>2016-07-24T10:46:30Z</time>
      </trkpt>
      <trkpt lat="42.41533" lon="0.09622">
        <ele>720.9</ele>
        <time>2016-07-24T10:46:32Z</time>
      </trkpt>
      <trkpt lat="42.41533" lon="0.09627">
        <ele>721.1</ele>
        <time>2016-07-24T10:46:34Z</time>
      </trkpt>
      <trkpt lat="42.41533" lon="0.09632">
        <ele>721.2</ele>
        <time>2016-07-24T10:46:36Z</time>
      </trkpt>
      <trkpt lat="42.41532" lon="0.09638">
        <ele>721.3</ele>
        <time>2016-07-24T10:46:38Z</time>
      </trkpt>
      <trkpt lat="42.41531" lon="0.09643">
        <ele>721.4</ele>
        <time>2016-07-24T10:46:40Z</time>
      </trkpt>
      <trkpt lat="42.41531" lon="0.09648">
        <ele>721.6</ele>
        <time>2016-07-24T10:46:42Z</time>
      </trkpt>
      <trkpt lat="42.41531" lon="0.09653">
        <ele>721.7</ele>
        <time>2016-07-24T10:46:44Z</time>
      </trkpt>
      <trkpt lat="42.41532" lon="0.09658">
        <ele>721.9</ele>
        <time>2016-07-24T10:46:46Z</time>
      </trkpt>
      <trkpt lat="42.41532" lon="0.09662">
        <ele>722.1</ele>
        <time>2016-07-24T10:46:48Z</time>
      </trkpt>
      <trkpt lat="42.41534" lon="0.09666">
        <ele>722.5</ele>
        <time>2016-07-24T10:46:50Z</time>
      </trkpt>
      <trkpt lat="42.41537" lon="0.0967">
        <ele>722.9</ele>
        <time>2016-07-24T10:46:52Z</time>
      </trkpt>
      <trkpt lat="42.41539" lon="0.09673">
        <ele>723.4</ele>
        <time>2016-07-24T10:46:54Z</time>
      </trkpt>
      <trkpt lat="42.41542" lon="0.09676">
        <ele>723.9</ele>
        <time>2016-07-24T10:46:56Z</time>
      </trkpt>
      <trkpt lat="42.41544" lon="0.09679">
        <ele>724.1</ele>
        <time>2016-07-24T10:46:58Z</time>
      </trkpt>
      <trkpt lat="42.41547" lon="0.09682">
        <ele>724.4</ele>
        <time>2016-07-24T10:47:00Z</time>
      </trkpt>
      <trkpt lat="42.4155" lon="0.09684">
        <ele>724.8</ele>
        <time>2016-07-24T10:47:02Z</time>
      </trkpt>
      <trkpt lat="42.41552" lon="0.09687">
        <ele>725</ele>
        <time>2016-07-24T10:47:04Z</time>
      </trkpt>
      <trkpt lat="42.41553" lon="0.09691">
        <ele>725.3</ele>
        <time>2016-07-24T10:47:06Z</time>
      </trkpt>
      <trkpt lat="42.41556" lon="0.09694">
        <ele>725.7</ele>
        <time>2016-07-24T10:47:08Z</time>
      </trkpt>
      <trkpt lat="42.41558" lon="0.09697">
        <ele>726</ele>
        <time>2016-07-24T10:47:10Z</time>
      </trkpt>
      <trkpt lat="42.4156" lon="0.097">
        <ele>726.4</ele>
        <time>2016-07-24T10:47:12Z</time>
      </trkpt>
      <trkpt lat="42.41563" lon="0.09702">
        <ele>726.7</ele>
        <time>2016-07-24T10:47:14Z</time>
      </trkpt>
      <trkpt lat="42.41566" lon="0.09705">
        <ele>727.1</ele>
        <time>2016-07-24T10:47:16Z</time>
      </trkpt>
      <trkpt lat="42.41569" lon="0.09706">
        <ele>727.5</ele>
        <time>2016-07-24T10:47:18Z</time>
      </trkpt>
      <trkpt lat="42.41572" lon="0.09707">
        <ele>727.9</ele>
        <time>2016-07-24T10:47:20Z</time>
      </trkpt>
      <trkpt lat="42.41575" lon="0.09709">
        <ele>728.2</ele>
        <time>2016-07-24T10:47:22Z</time>
      </trkpt>
      <trkpt lat="42.41579" lon="0.0971">
        <ele>728.6</ele>
        <time>2016-07-24T10:47:24Z</time>
      </trkpt>
      <trkpt lat="42.41582" lon="0.09712">
        <ele>728.9</ele>
        <time>2016-07-24T10:47:26Z</time>
      </trkpt>
      <trkpt lat="42.41584" lon="0.09715">
        <ele>729.2</ele>
        <time>2016-07-24T10:47:28Z</time>
      </trkpt>
      <trkpt lat="42.41586" lon="0.09718">
        <ele>729.5</ele>
        <time>2016-07-24T10:47:30Z</time>
      </trkpt>
      <trkpt lat="42.41588" lon="0.09721">
        <ele>729.9</ele>
        <time>2016-07-24T10:47:32Z</time>
      </trkpt>
      <trkpt lat="42.41589" lon="0.09724">
        <ele>730.2</ele>
        <time>2016-07-24T10:47:34Z</time>
      </trkpt>
      <trkpt lat="42.41589" lon="0.09728">
        <ele>730.4</ele>
        <time>2016-07-24T10:47:36Z</time>
      </trkpt>
      <trkpt lat="42.41587" lon="0.09733">
        <ele>730.3</ele>
        <time>2016-07-24T10:47:38Z</time>
      </trkpt>
      <trkpt lat="42.41585" lon="0.09737">
        <ele>730.1</ele>
        <time>2016-07-24T10:47:40Z</time>
      </trkpt>
      <trkpt lat="42.41583" lon="0.09742">
        <ele>730</ele>
        <time>2016-07-24T10:47:42Z</time>
      </trkpt>
      <trkpt lat="42.41582" lon="0.09747">
        <ele>729.9</ele>
        <time>2016-07-24T10:47:44Z</time>
      </trkpt>
      <trkpt lat="42.4158" lon="0.09753">
        <ele>729.8</ele>
        <time>2016-07-24T10:47:46Z</time>
      </trkpt>
      <trkpt lat="42.41579" lon="0.09759">
        <ele>729.7</ele>
        <time>2016-07-24T10:47:48Z</time>
      </trkpt>
      <trkpt lat="42.41578" lon="0.09764">
        <ele>729.6</ele>
        <time>2016-07-24T10:47:50Z</time>
      </trkpt>
      <trkpt lat="42.41577" lon="0.09769">
        <ele>729.5</ele>
        <time>2016-07-24T10:47:52Z</time>
      </trkpt>
      <trkpt lat="42.41576" lon="0.09775">
        <ele>729.3</ele>
        <time>2016-07-24T10:47:54Z</time>
      </trkpt>
      <trkpt lat="42.41575" lon="0.0978">
        <ele>729.2</ele>
        <time>2016-07-24T10:47:56Z</time>
      </trkpt>
      <trkpt lat="42.41574" lon="0.09785">
        <ele>729</ele>
        <time>2016-07-24T10:47:58Z</time>
      </trkpt>
      <trkpt lat="42.41573" lon="0.09791">
        <ele>729</ele>
        <time>2016-07-24T10:48:00Z</time>
      </trkpt>
      <trkpt lat="42.41573" lon="0.09796">
        <ele>729.1</ele>
        <time>2016-07-24T10:48:02Z</time>
      </trkpt>
      <trkpt lat="42.41573" lon="0.09802">
        <ele>729.4</ele>
        <time>2016-07-24T10:48:04Z</time>
      </trkpt>
      <trkpt lat="42.41574" lon="0.09807">
        <ele>729.7</ele>
        <time>2016-07-24T10:48:06Z</time>
      </trkpt>
      <trkpt lat="42.41576" lon="0.09811">
        <ele>730.4</ele>
        <time>2016-07-24T10:48:08Z</time>
      </trkpt>
      <trkpt lat="42.4158" lon="0.0981">
        <ele>731.5</ele>
        <time>2016-07-24T10:48:10Z</time>
      </trkpt>
      <trkpt lat="42.41584" lon="0.09806">
        <ele>732.4</ele>
        <time>2016-07-24T10:48:12Z</time>
      </trkpt>
      <trkpt lat="42.41587" lon="0.09801">
        <ele>733</ele>
        <time>2016-07-24T10:48:14Z</time>
      </trkpt>
      <trkpt lat="42.41589" lon="0.09796">
        <ele>733.2</ele>
        <time>2016-07-24T10:48:16Z</time>
      </trkpt>
      <trkpt lat="42.41591" lon="0.0979">
        <ele>733.4</ele>
        <time>2016-07-24T10:48:18Z</time>
      </trkpt>
      <trkpt lat="42.41593" lon="0.09786">
        <ele>733.7</ele>
        <time>2016-07-24T10:48:20Z</time>
      </trkpt>
      <trkpt lat="42.41595" lon="0.09782">
        <ele>734</ele>
        <time>2016-07-24T10:48:22Z</time>
      </trkpt>
      <trkpt lat="42.41597" lon="0.09778">
        <ele>734.3</ele>
        <time>2016-07-24T10:48:24Z</time>
      </trkpt>
      <trkpt lat="42.41599" lon="0.09774">
        <ele>734.5</ele>
        <time>2016-07-24T10:48:26Z</time>
      </trkpt>
      <trkpt lat="42.41602" lon="0.09772">
        <ele>735</ele>
        <time>2016-07-24T10:48:28Z</time>
      </trkpt>
      <trkpt lat="42.41606" lon="0.09771">
        <ele>735.6</ele>
        <time>2016-07-24T10:48:30Z</time>
      </trkpt>
      <trkpt lat="42.41609" lon="0.09772">
        <ele>736.4</ele>
        <time>2016-07-24T10:48:32Z</time>
      </trkpt>
      <trkpt lat="42.41612" lon="0.09776">
        <ele>737.3</ele>
        <time>2016-07-24T10:48:34Z</time>
      </trkpt>
      <trkpt lat="42.41612" lon="0.09781">
        <ele>737.9</ele>
        <time>2016-07-24T10:48:36Z</time>
      </trkpt>
      <trkpt lat="42.4161" lon="0.09786">
        <ele>737.8</ele>
        <time>2016-07-24T10:48:38Z</time>
      </trkpt>
      <trkpt lat="42.41608" lon="0.09791">
        <ele>737.6</ele>
        <time>2016-07-24T10:48:40Z</time>
      </trkpt>
      <trkpt lat="42.41606" lon="0.09797">
        <ele>737.6</ele>
        <time>2016-07-24T10:48:42Z</time>
      </trkpt>
      <trkpt lat="42.41605" lon="0.09803">
        <ele>738</ele>
        <time>2016-07-24T10:48:44Z</time>
      </trkpt>
      <trkpt lat="42.41605" lon="0.09809">
        <ele>738.2</ele>
        <time>2016-07-24T10:48:46Z</time>
      </trkpt>
      <trkpt lat="42.41603" lon="0.09815">
        <ele>738.4</ele>
        <time>2016-07-24T10:48:48Z</time>
      </trkpt>
      <trkpt lat="42.41602" lon="0.09821">
        <ele>738.4</ele>
        <time>2016-07-24T10:48:50Z</time>
      </trkpt>
      <trkpt lat="42.416" lon="0.09827">
        <ele>738.4</ele>
        <time>2016-07-24T10:48:52Z</time>
      </trkpt>
      <trkpt lat="42.41599" lon="0.09833">
        <ele>738.4</ele>
        <time>2016-07-24T10:48:54Z</time>
      </trkpt>
      <trkpt lat="42.41597" lon="0.09839">
        <ele>738.4</ele>
        <time>2016-07-24T10:48:56Z</time>
      </trkpt>
      <trkpt lat="42.41596" lon="0.09845">
        <ele>738.5</ele>
        <time>2016-07-24T10:48:58Z</time>
      </trkpt>
      <trkpt lat="42.41596" lon="0.09851">
        <ele>738.7</ele>
        <time>2016-07-24T10:49:00Z</time>
      </trkpt>
      <trkpt lat="42.41595" lon="0.09857">
        <ele>738.8</ele>
        <time>2016-07-24T10:49:02Z</time>
      </trkpt>
      <trkpt lat="42.41594" lon="0.09863">
        <ele>739</ele>
        <time>2016-07-24T10:49:04Z</time>
      </trkpt>
      <trkpt lat="42.41593" lon="0.09869">
        <ele>739.2</ele>
        <time>2016-07-24T10:49:06Z</time>
      </trkpt>
      <trkpt lat="42.41593" lon="0.09875">
        <ele>739.6</ele>
        <time>2016-07-24T10:49:08Z</time>
      </trkpt>
      <trkpt lat="42.41594" lon="0.0988">
        <ele>740.1</ele>
        <time>2016-07-24T10:49:10Z</time>
      </trkpt>
      <trkpt lat="42.41595" lon="0.09885">
        <ele>740.7</ele>
        <time>2016-07-24T10:49:12Z</time>
      </trkpt>
      <trkpt lat="42.41598" lon="0.09889">
        <ele>741.9</ele>
        <time>2016-07-24T10:49:14Z</time>
      </trkpt>
      <trkpt lat="42.41602" lon="0.09888">
        <ele>743.4</ele>
        <time>2016-07-24T10:49:16Z</time>
      </trkpt>
      <trkpt lat="42.41606" lon="0.09883">
        <ele>744.5</ele>
        <time>2016-07-24T10:49:18Z</time>
      </trkpt>
      <trkpt lat="42.41607" lon="0.09879">
        <ele>744.8</ele>
        <time>2016-07-24T10:49:19Z</time>
      </trkpt>
      <trkpt lat="42.41609" lon="0.09873">
        <ele>745.1</ele>
        <time>2016-07-24T10:49:21Z</time>
      </trkpt>
      <trkpt lat="42.41611" lon="0.09867">
        <ele>745.1</ele>
        <time>2016-07-24T10:49:23Z</time>
      </trkpt>
      <trkpt lat="42.41613" lon="0.09862">
        <ele>745.3</ele>
        <time>2016-07-24T10:49:25Z</time>
      </trkpt>
      <trkpt lat="42.41615" lon="0.09857">
        <ele>745.8</ele>
        <time>2016-07-24T10:49:27Z</time>
      </trkpt>
      <trkpt lat="42.41618" lon="0.09851">
        <ele>746.1</ele>
        <time>2016-07-24T10:49:29Z</time>
      </trkpt>
      <trkpt lat="42.41621" lon="0.09846">
        <ele>746.5</ele>
        <time>2016-07-24T10:49:31Z</time>
      </trkpt>
      <trkpt lat="42.41622" lon="0.09843">
        <ele>746.6</ele>
        <time>2016-07-24T10:49:32Z</time>
      </trkpt>
      <trkpt lat="42.41624" lon="0.09839">
        <ele>746.8</ele>
        <time>2016-07-24T10:49:33Z</time>
      </trkpt>
      <trkpt lat="42.41625" lon="0.09836">
        <ele>746.8</ele>
        <time>2016-07-24T10:49:34Z</time>
      </trkpt>
      <trkpt lat="42.41627" lon="0.09832">
        <ele>746.8</ele>
        <time>2016-07-24T10:49:35Z</time>
      </trkpt>
      <trkpt lat="42.41628" lon="0.09828">
        <ele>746.6</ele>
        <time>2016-07-24T10:49:36Z</time>
      </trkpt>
      <trkpt lat="42.41629" lon="0.09824">
        <ele>746.4</ele>
        <time>2016-07-24T10:49:37Z</time>
      </trkpt>
      <trkpt lat="42.4163" lon="0.09819">
        <ele>746.2</ele>
        <time>2016-07-24T10:49:38Z</time>
      </trkpt>
      <trkpt lat="42.41632" lon="0.09814">
        <ele>746</ele>
        <time>2016-07-24T10:49:39Z</time>
      </trkpt>
      <trkpt lat="42.41633" lon="0.0981">
        <ele>745.7</ele>
        <time>2016-07-24T10:49:40Z</time>
      </trkpt>
      <trkpt lat="42.41633" lon="0.09806">
        <ele>745.4</ele>
        <time>2016-07-24T10:49:41Z</time>
      </trkpt>
      <trkpt lat="42.41635" lon="0.098">
        <ele>745.1</ele>
        <time>2016-07-24T10:49:43Z</time>
      </trkpt>
      <trkpt lat="42.41636" lon="0.09797">
        <ele>745.2</ele>
        <time>2016-07-24T10:49:44Z</time>
      </trkpt>
      <trkpt lat="42.41639" lon="0.09794">
        <ele>745.4</ele>
        <time>2016-07-24T10:49:45Z</time>
      </trkpt>
      <trkpt lat="42.41641" lon="0.09791">
        <ele>745.5</ele>
        <time>2016-07-24T10:49:46Z</time>
      </trkpt>
      <trkpt lat="42.41644" lon="0.09787">
        <ele>745.7</ele>
        <time>2016-07-24T10:49:47Z</time>
      </trkpt>
      <trkpt lat="42.41647" lon="0.09784">
        <ele>746</ele>
        <time>2016-07-24T10:49:48Z</time>
      </trkpt>
      <trkpt lat="42.4165" lon="0.09781">
        <ele>746.4</ele>
        <time>2016-07-24T10:49:49Z</time>
      </trkpt>
      <trkpt lat="42.41654" lon="0.09778">
        <ele>746.9</ele>
        <time>2016-07-24T10:49:50Z</time>
      </trkpt>
      <trkpt lat="42.41657" lon="0.09775">
        <ele>747.3</ele>
        <time>2016-07-24T10:49:51Z</time>
      </trkpt>
      <trkpt lat="42.4166" lon="0.09773">
        <ele>747.6</ele>
        <time>2016-07-24T10:49:52Z</time>
      </trkpt>
      <trkpt lat="42.41663" lon="0.0977">
        <ele>747.9</ele>
        <time>2016-07-24T10:49:53Z</time>
      </trkpt>
      <trkpt lat="42.41666" lon="0.09767">
        <ele>748.1</ele>
        <time>2016-07-24T10:49:54Z</time>
      </trkpt>
      <trkpt lat="42.41669" lon="0.09765">
        <ele>748.4</ele>
        <time>2016-07-24T10:49:55Z</time>
      </trkpt>
      <trkpt lat="42.41672" lon="0.09762">
        <ele>748.7</ele>
        <time>2016-07-24T10:49:56Z</time>
      </trkpt>
      <trkpt lat="42.41675" lon="0.09759">
        <ele>749</ele>
        <time>2016-07-24T10:49:57Z</time>
      </trkpt>
      <trkpt lat="42.41678" lon="0.09756">
        <ele>749.1</ele>
        <time>2016-07-24T10:49:58Z</time>
      </trkpt>
      <trkpt lat="42.41681" lon="0.09753">
        <ele>749.3</ele>
        <time>2016-07-24T10:49:59Z</time>
      </trkpt>
      <trkpt lat="42.41683" lon="0.09751">
        <ele>749.5</ele>
        <time>2016-07-24T10:50:00Z</time>
      </trkpt>
      <trkpt lat="42.41686" lon="0.09748">
        <ele>749.6</ele>
        <time>2016-07-24T10:50:01Z</time>
      </trkpt>
      <trkpt lat="42.41688" lon="0.09746">
        <ele>749.8</ele>
        <time>2016-07-24T10:50:02Z</time>
      </trkpt>
      <trkpt lat="42.41691" lon="0.09743">
        <ele>749.9</ele>
        <time>2016-07-24T10:50:03Z</time>
      </trkpt>
      <trkpt lat="42.41693" lon="0.09741">
        <ele>750</ele>
        <time>2016-07-24T10:50:04Z</time>
      </trkpt>
      <trkpt lat="42.41697" lon="0.09738">
        <ele>750.5</ele>
        <time>2016-07-24T10:50:06Z</time>
      </trkpt>
      <trkpt lat="42.41702" lon="0.09738">
        <ele>751.3</ele>
        <time>2016-07-24T10:50:08Z</time>
      </trkpt>
      <trkpt lat="42.41707" lon="0.09739">
        <ele>752.4</ele>
        <time>2016-07-24T10:50:10Z</time>
      </trkpt>
      <trkpt lat="42.41711" lon="0.09742">
        <ele>753</ele>
        <time>2016-07-24T10:50:12Z</time>
      </trkpt>
      <trkpt lat="42.41714" lon="0.09747">
        <ele>753.5</ele>
        <time>2016-07-24T10:50:14Z</time>
      </trkpt>
      <trkpt lat="42.41716" lon="0.09753">
        <ele>754</ele>
        <time>2016-07-24T10:50:16Z</time>
      </trkpt>
      <trkpt lat="42.41719" lon="0.09758">
        <ele>754.6</ele>
        <time>2016-07-24T10:50:18Z</time>
      </trkpt>
      <trkpt lat="42.41721" lon="0.09764">
        <ele>755.2</ele>
        <time>2016-07-24T10:50:20Z</time>
      </trkpt>
      <trkpt lat="42.41723" lon="0.0977">
        <ele>756</ele>
        <time>2016-07-24T10:50:22Z</time>
      </trkpt>
      <trkpt lat="42.41724" lon="0.09775">
        <ele>756.6</ele>
        <time>2016-07-24T10:50:24Z</time>
      </trkpt>
      <trkpt lat="42.41725" lon="0.0978">
        <ele>757.3</ele>
        <time>2016-07-24T10:50:27Z</time>
      </trkpt>
      <trkpt lat="42.41725" lon="0.09786">
        <ele>758.2</ele>
        <time>2016-07-24T10:50:29Z</time>
      </trkpt>
      <trkpt lat="42.41725" lon="0.09791">
        <ele>759.1</ele>
        <time>2016-07-24T10:50:31Z</time>
      </trkpt>
      <trkpt lat="42.41724" lon="0.09795">
        <ele>759.7</ele>
        <time>2016-07-24T10:50:33Z</time>
      </trkpt>
      <trkpt lat="42.41723" lon="0.098">
        <ele>760.4</ele>
        <time>2016-07-24T10:50:35Z</time>
      </trkpt>
      <trkpt lat="42.41723" lon="0.09805">
        <ele>761.2</ele>
        <time>2016-07-24T10:50:37Z</time>
      </trkpt>
      <trkpt lat="42.41722" lon="0.09809">
        <ele>761.8</ele>
        <time>2016-07-24T10:50:39Z</time>
      </trkpt>
      <trkpt lat="42.41721" lon="0.09815">
        <ele>762.6</ele>
        <time>2016-07-24T10:50:41Z</time>
      </trkpt>
      <trkpt lat="42.41719" lon="0.09819">
        <ele>763.4</ele>
        <time>2016-07-24T10:50:43Z</time>
      </trkpt>
      <trkpt lat="42.41717" lon="0.09822">
        <ele>764.1</ele>
        <time>2016-07-24T10:50:45Z</time>
      </trkpt>
      <trkpt lat="42.41715" lon="0.09825">
        <ele>764.8</ele>
        <time>2016-07-24T10:50:47Z</time>
      </trkpt>
      <trkpt lat="42.41715" lon="0.09829">
        <ele>765.5</ele>
        <time>2016-07-24T10:50:49Z</time>
      </trkpt>
      <trkpt lat="42.41714" lon="0.09834">
        <ele>766.2</ele>
        <time>2016-07-24T10:50:51Z</time>
      </trkpt>
      <trkpt lat="42.41712" lon="0.09837">
        <ele>767</ele>
        <time>2016-07-24T10:50:53Z</time>
      </trkpt>
      <trkpt lat="42.4171" lon="0.0984">
        <ele>767.7</ele>
        <time>2016-07-24T10:50:55Z</time>
      </trkpt>
      <trkpt lat="42.41708" lon="0.09844">
        <ele>768.4</ele>
        <time>2016-07-24T10:50:57Z</time>
      </trkpt>
      <trkpt lat="42.41705" lon="0.09846">
        <ele>767.8</ele>
        <time>2016-07-24T10:50:59Z</time>
      </trkpt>
      <trkpt lat="42.41701" lon="0.09846">
        <ele>766.9</ele>
        <time>2016-07-24T10:51:01Z</time>
      </trkpt>
      <trkpt lat="42.41697" lon="0.09846">
        <ele>766</ele>
        <time>2016-07-24T10:51:03Z</time>
      </trkpt>
      <trkpt lat="42.41695" lon="0.09845">
        <ele>765.2</ele>
        <time>2016-07-24T10:51:05Z</time>
      </trkpt>
      <trkpt lat="42.41692" lon="0.09843">
        <ele>764.3</ele>
        <time>2016-07-24T10:51:07Z</time>
      </trkpt>
      <trkpt lat="42.41688" lon="0.09842">
        <ele>763.3</ele>
        <time>2016-07-24T10:51:09Z</time>
      </trkpt>
      <trkpt lat="42.41684" lon="0.09843">
        <ele>762.3</ele>
        <time>2016-07-24T10:51:11Z</time>
      </trkpt>
      <trkpt lat="42.41681" lon="0.09843">
        <ele>761.6</ele>
        <time>2016-07-24T10:51:13Z</time>
      </trkpt>
      <trkpt lat="42.41678" lon="0.09843">
        <ele>760.9</ele>
        <time>2016-07-24T10:51:16Z</time>
      </trkpt>
      <trkpt lat="42.41676" lon="0.09846">
        <ele>760.6</ele>
        <time>2016-07-24T10:51:20Z</time>
      </trkpt>
      <trkpt lat="42.41673" lon="0.09849">
        <ele>760.2</ele>
        <time>2016-07-24T10:51:22Z</time>
      </trkpt>
      <trkpt lat="42.4167" lon="0.09853">
        <ele>759.9</ele>
        <time>2016-07-24T10:51:24Z</time>
      </trkpt>
      <trkpt lat="42.41667" lon="0.09856">
        <ele>759.6</ele>
        <time>2016-07-24T10:51:26Z</time>
      </trkpt>
      <trkpt lat="42.41664" lon="0.09859">
        <ele>759.3</ele>
        <time>2016-07-24T10:51:28Z</time>
      </trkpt>
      <trkpt lat="42.41661" lon="0.09861">
        <ele>758.9</ele>
        <time>2016-07-24T10:51:30Z</time>
      </trkpt>
      <trkpt lat="42.41658" lon="0.09862">
        <ele>758.2</ele>
        <time>2016-07-24T10:51:32Z</time>
      </trkpt>
      <trkpt lat="42.41656" lon="0.09865">
        <ele>758</ele>
        <time>2016-07-24T10:51:34Z</time>
      </trkpt>
      <trkpt lat="42.41657" lon="0.0987">
        <ele>758.6</ele>
        <time>2016-07-24T10:51:36Z</time>
      </trkpt>
      <trkpt lat="42.41659" lon="0.09871">
        <ele>759.5</ele>
        <time>2016-07-24T10:51:38Z</time>
      </trkpt>
      <trkpt lat="42.41662" lon="0.0987">
        <ele>760.2</ele>
        <time>2016-07-24T10:51:40Z</time>
      </trkpt>
      <trkpt lat="42.41664" lon="0.09867">
        <ele>760.4</ele>
        <time>2016-07-24T10:51:42Z</time>
      </trkpt>
      <trkpt lat="42.41667" lon="0.09864">
        <ele>760.6</ele>
        <time>2016-07-24T10:51:44Z</time>
      </trkpt>
      <trkpt lat="42.41669" lon="0.0986">
        <ele>760.7</ele>
        <time>2016-07-24T10:51:46Z</time>
      </trkpt>
      <trkpt lat="42.41672" lon="0.09855">
        <ele>760.7</ele>
        <time>2016-07-24T10:51:48Z</time>
      </trkpt>
      <trkpt lat="42.41674" lon="0.09852">
        <ele>760.9</ele>
        <time>2016-07-24T10:51:49Z</time>
      </trkpt>
      <trkpt lat="42.41676" lon="0.0985">
        <ele>761.1</ele>
        <time>2016-07-24T10:51:50Z</time>
      </trkpt>
      <trkpt lat="42.4168" lon="0.09846">
        <ele>761.8</ele>
        <time>2016-07-24T10:51:52Z</time>
      </trkpt>
      <trkpt lat="42.41685" lon="0.09845">
        <ele>762.7</ele>
        <time>2016-07-24T10:51:54Z</time>
      </trkpt>
      <trkpt lat="42.41688" lon="0.09844">
        <ele>763.5</ele>
        <time>2016-07-24T10:51:56Z</time>
      </trkpt>
      <trkpt lat="42.41692" lon="0.09843">
        <ele>764.3</ele>
        <time>2016-07-24T10:51:58Z</time>
      </trkpt>
      <trkpt lat="42.41696" lon="0.09843">
        <ele>765.1</ele>
        <time>2016-07-24T10:52:00Z</time>
      </trkpt>
      <trkpt lat="42.41699" lon="0.09845">
        <ele>766.4</ele>
        <time>2016-07-24T10:52:02Z</time>
      </trkpt>
      <trkpt lat="42.41704" lon="0.09849">
        <ele>768</ele>
        <time>2016-07-24T10:52:04Z</time>
      </trkpt>
      <trkpt lat="42.41705" lon="0.09852">
        <ele>769</ele>
        <time>2016-07-24T10:52:05Z</time>
      </trkpt>
      <trkpt lat="42.41707" lon="0.09858">
        <ele>770.1</ele>
        <time>2016-07-24T10:52:07Z</time>
      </trkpt>
      <trkpt lat="42.41707" lon="0.09862">
        <ele>770.7</ele>
        <time>2016-07-24T10:52:09Z</time>
      </trkpt>
      <trkpt lat="42.41705" lon="0.09866">
        <ele>771</ele>
        <time>2016-07-24T10:52:11Z</time>
      </trkpt>
      <trkpt lat="42.41705" lon="0.09873">
        <ele>771.7</ele>
        <time>2016-07-24T10:52:13Z</time>
      </trkpt>
      <trkpt lat="42.41704" lon="0.09877">
        <ele>771.9</ele>
        <time>2016-07-24T10:52:14Z</time>
      </trkpt>
      <trkpt lat="42.41704" lon="0.09882">
        <ele>771.8</ele>
        <time>2016-07-24T10:52:15Z</time>
      </trkpt>
      <trkpt lat="42.41703" lon="0.09887">
        <ele>771.7</ele>
        <time>2016-07-24T10:52:16Z</time>
      </trkpt>
      <trkpt lat="42.41702" lon="0.09891">
        <ele>771.4</ele>
        <time>2016-07-24T10:52:17Z</time>
      </trkpt>
      <trkpt lat="42.417" lon="0.09895">
        <ele>771.1</ele>
        <time>2016-07-24T10:52:18Z</time>
      </trkpt>
      <trkpt lat="42.41698" lon="0.09899">
        <ele>770.7</ele>
        <time>2016-07-24T10:52:19Z</time>
      </trkpt>
      <trkpt lat="42.41697" lon="0.09903">
        <ele>770.4</ele>
        <time>2016-07-24T10:52:20Z</time>
      </trkpt>
      <trkpt lat="42.41695" lon="0.09907">
        <ele>770</ele>
        <time>2016-07-24T10:52:21Z</time>
      </trkpt>
      <trkpt lat="42.41693" lon="0.09911">
        <ele>769.7</ele>
        <time>2016-07-24T10:52:22Z</time>
      </trkpt>
      <trkpt lat="42.41692" lon="0.09915">
        <ele>769.4</ele>
        <time>2016-07-24T10:52:23Z</time>
      </trkpt>
      <trkpt lat="42.41691" lon="0.09919">
        <ele>769.2</ele>
        <time>2016-07-24T10:52:24Z</time>
      </trkpt>
      <trkpt lat="42.41689" lon="0.09924">
        <ele>768.9</ele>
        <time>2016-07-24T10:52:25Z</time>
      </trkpt>
      <trkpt lat="42.41688" lon="0.09928">
        <ele>768.7</ele>
        <time>2016-07-24T10:52:26Z</time>
      </trkpt>
      <trkpt lat="42.41686" lon="0.09932">
        <ele>768.4</ele>
        <time>2016-07-24T10:52:27Z</time>
      </trkpt>
      <trkpt lat="42.41685" lon="0.09935">
        <ele>768.1</ele>
        <time>2016-07-24T10:52:28Z</time>
      </trkpt>
      <trkpt lat="42.41683" lon="0.09939">
        <ele>767.8</ele>
        <time>2016-07-24T10:52:29Z</time>
      </trkpt>
      <trkpt lat="42.41682" lon="0.09943">
        <ele>767.7</ele>
        <time>2016-07-24T10:52:30Z</time>
      </trkpt>
      <trkpt lat="42.41681" lon="0.09946">
        <ele>767.5</ele>
        <time>2016-07-24T10:52:31Z</time>
      </trkpt>
      <trkpt lat="42.4168" lon="0.0995">
        <ele>767.4</ele>
        <time>2016-07-24T10:52:32Z</time>
      </trkpt>
      <trkpt lat="42.41679" lon="0.09954">
        <ele>767.2</ele>
        <time>2016-07-24T10:52:33Z</time>
      </trkpt>
      <trkpt lat="42.41677" lon="0.09957">
        <ele>766.9</ele>
        <time>2016-07-24T10:52:34Z</time>
      </trkpt>
      <trkpt lat="42.41675" lon="0.09961">
        <ele>766.2</ele>
        <time>2016-07-24T10:52:35Z</time>
      </trkpt>
      <trkpt lat="42.41672" lon="0.09964">
        <ele>765.4</ele>
        <time>2016-07-24T10:52:36Z</time>
      </trkpt>
      <trkpt lat="42.4167" lon="0.09966">
        <ele>764.6</ele>
        <time>2016-07-24T10:52:37Z</time>
      </trkpt>
      <trkpt lat="42.41667" lon="0.09968">
        <ele>763.9</ele>
        <time>2016-07-24T10:52:38Z</time>
      </trkpt>
      <trkpt lat="42.41662" lon="0.09972">
        <ele>762.6</ele>
        <time>2016-07-24T10:52:40Z</time>
      </trkpt>
      <trkpt lat="42.41659" lon="0.09973">
        <ele>762</ele>
        <time>2016-07-24T10:52:41Z</time>
      </trkpt>
      <trkpt lat="42.41656" lon="0.09973">
        <ele>761.3</ele>
        <time>2016-07-24T10:52:42Z</time>
      </trkpt>
      <trkpt lat="42.41654" lon="0.09971">
        <ele>760.9</ele>
        <time>2016-07-24T10:52:43Z</time>
      </trkpt>
      <trkpt lat="42.41652" lon="0.09969">
        <ele>760.5</ele>
        <time>2016-07-24T10:52:44Z</time>
      </trkpt>
      <trkpt lat="42.4165" lon="0.09966">
        <ele>760.2</ele>
        <time>2016-07-24T10:52:45Z</time>
      </trkpt>
      <trkpt lat="42.41648" lon="0.09962">
        <ele>760.1</ele>
        <time>2016-07-24T10:52:46Z</time>
      </trkpt>
      <trkpt lat="42.41647" lon="0.09957">
        <ele>760</ele>
        <time>2016-07-24T10:52:47Z</time>
      </trkpt>
      <trkpt lat="42.41647" lon="0.09952">
        <ele>759.8</ele>
        <time>2016-07-24T10:52:48Z</time>
      </trkpt>
      <trkpt lat="42.41648" lon="0.09948">
        <ele>759.7</ele>
        <time>2016-07-24T10:52:49Z</time>
      </trkpt>
      <trkpt lat="42.41648" lon="0.09944">
        <ele>759.7</ele>
        <time>2016-07-24T10:52:50Z</time>
      </trkpt>
      <trkpt lat="42.41649" lon="0.09938">
        <ele>759.6</ele>
        <time>2016-07-24T10:52:52Z</time>
      </trkpt>
      <trkpt lat="42.41649" lon="0.09932">
        <ele>759.5</ele>
        <time>2016-07-24T10:52:55Z</time>
      </trkpt>
      <trkpt lat="42.41649" lon="0.09927">
        <ele>759.3</ele>
        <time>2016-07-24T10:52:57Z</time>
      </trkpt>
      <trkpt lat="42.41649" lon="0.09919">
        <ele>759</ele>
        <time>2016-07-24T10:52:59Z</time>
      </trkpt>
      <trkpt lat="42.41648" lon="0.09914">
        <ele>758.6</ele>
        <time>2016-07-24T10:53:01Z</time>
      </trkpt>
      <trkpt lat="42.41645" lon="0.09914">
        <ele>757.7</ele>
        <time>2016-07-24T10:53:04Z</time>
      </trkpt>
      <trkpt lat="42.41642" lon="0.09917">
        <ele>757.2</ele>
        <time>2016-07-24T10:53:06Z</time>
      </trkpt>
      <trkpt lat="42.41638" lon="0.09917">
        <ele>756.3</ele>
        <time>2016-07-24T10:53:08Z</time>
      </trkpt>
      <trkpt lat="42.41635" lon="0.09918">
        <ele>755.6</ele>
        <time>2016-07-24T10:53:10Z</time>
      </trkpt>
      <trkpt lat="42.41633" lon="0.09921">
        <ele>755.1</ele>
        <time>2016-07-24T10:53:12Z</time>
      </trkpt>
      <trkpt lat="42.41631" lon="0.09925">
        <ele>754.8</ele>
        <time>2016-07-24T10:53:14Z</time>
      </trkpt>
      <trkpt lat="42.41629" lon="0.09929">
        <ele>754.5</ele>
        <time>2016-07-24T10:53:15Z</time>
      </trkpt>
      <trkpt lat="42.41627" lon="0.09933">
        <ele>754.2</ele>
        <time>2016-07-24T10:53:16Z</time>
      </trkpt>
      <trkpt lat="42.41625" lon="0.09936">
        <ele>753.9</ele>
        <time>2016-07-24T10:53:17Z</time>
      </trkpt>
      <trkpt lat="42.41622" lon="0.09941">
        <ele>753.2</ele>
        <time>2016-07-24T10:53:19Z</time>
      </trkpt>
      <trkpt lat="42.4162" lon="0.09947">
        <ele>752.8</ele>
        <time>2016-07-24T10:53:21Z</time>
      </trkpt>
      <trkpt lat="42.41619" lon="0.09953">
        <ele>752.5</ele>
        <time>2016-07-24T10:53:23Z</time>
      </trkpt>
      <trkpt lat="42.41618" lon="0.09957">
        <ele>752.4</ele>
        <time>2016-07-24T10:53:24Z</time>
      </trkpt>
      <trkpt lat="42.41617" lon="0.0996">
        <ele>752.1</ele>
        <time>2016-07-24T10:53:25Z</time>
      </trkpt>
      <trkpt lat="42.41615" lon="0.09966">
        <ele>751.6</ele>
        <time>2016-07-24T10:53:27Z</time>
      </trkpt>
      <trkpt lat="42.41613" lon="0.0997">
        <ele>750.9</ele>
        <time>2016-07-24T10:53:29Z</time>
      </trkpt>
      <trkpt lat="42.41611" lon="0.09975">
        <ele>750</ele>
        <time>2016-07-24T10:53:31Z</time>
      </trkpt>
      <trkpt lat="42.41608" lon="0.09978">
        <ele>749.2</ele>
        <time>2016-07-24T10:53:33Z</time>
      </trkpt>
      <trkpt lat="42.41606" lon="0.0998">
        <ele>748.4</ele>
        <time>2016-07-24T10:53:35Z</time>
      </trkpt>
      <trkpt lat="42.41603" lon="0.09982">
        <ele>747.5</ele>
        <time>2016-07-24T10:53:37Z</time>
      </trkpt>
      <trkpt lat="42.416" lon="0.09985">
        <ele>746.5</ele>
        <time>2016-07-24T10:53:39Z</time>
      </trkpt>
      <trkpt lat="42.41597" lon="0.09987">
        <ele>745.7</ele>
        <time>2016-07-24T10:53:41Z</time>
      </trkpt>
      <trkpt lat="42.41595" lon="0.09991">
        <ele>745</ele>
        <time>2016-07-24T10:53:43Z</time>
      </trkpt>
      <trkpt lat="42.41594" lon="0.09995">
        <ele>744.6</ele>
        <time>2016-07-24T10:53:44Z</time>
      </trkpt>
      <trkpt lat="42.41591" lon="0.09998">
        <ele>743.9</ele>
        <time>2016-07-24T10:53:45Z</time>
      </trkpt>
      <trkpt lat="42.41588" lon="0.10001">
        <ele>743.1</ele>
        <time>2016-07-24T10:53:46Z</time>
      </trkpt>
      <trkpt lat="42.41584" lon="0.10003">
        <ele>741.9</ele>
        <time>2016-07-24T10:53:47Z</time>
      </trkpt>
      <trkpt lat="42.4158" lon="0.10005">
        <ele>740.5</ele>
        <time>2016-07-24T10:53:48Z</time>
      </trkpt>
      <trkpt lat="42.41575" lon="0.10008">
        <ele>739.2</ele>
        <time>2016-07-24T10:53:49Z</time>
      </trkpt>
      <trkpt lat="42.41572" lon="0.10011">
        <ele>738.2</ele>
        <time>2016-07-24T10:53:50Z</time>
      </trkpt>
      <trkpt lat="42.41569" lon="0.10015">
        <ele>737.5</ele>
        <time>2016-07-24T10:53:52Z</time>
      </trkpt>
      <trkpt lat="42.4157" lon="0.1002">
        <ele>738</ele>
        <time>2016-07-24T10:53:54Z</time>
      </trkpt>
      <trkpt lat="42.41572" lon="0.10026">
        <ele>738.9</ele>
        <time>2016-07-24T10:53:56Z</time>
      </trkpt>
      <trkpt lat="42.41571" lon="0.10031">
        <ele>738.8</ele>
        <time>2016-07-24T10:53:58Z</time>
      </trkpt>
      <trkpt lat="42.41567" lon="0.10034">
        <ele>737.7</ele>
        <time>2016-07-24T10:54:00Z</time>
      </trkpt>
      <trkpt lat="42.41563" lon="0.10033">
        <ele>736.4</ele>
        <time>2016-07-24T10:54:02Z</time>
      </trkpt>
      <trkpt lat="42.4156" lon="0.10032">
        <ele>735.6</ele>
        <time>2016-07-24T10:54:03Z</time>
      </trkpt>
      <trkpt lat="42.41557" lon="0.1003">
        <ele>734.7</ele>
        <time>2016-07-24T10:54:04Z</time>
      </trkpt>
      <trkpt lat="42.41555" lon="0.10027">
        <ele>734</ele>
        <time>2016-07-24T10:54:05Z</time>
      </trkpt>
      <trkpt lat="42.41552" lon="0.10024">
        <ele>732.9</ele>
        <time>2016-07-24T10:54:07Z</time>
      </trkpt>
      <trkpt lat="42.41551" lon="0.10028">
        <ele>732.9</ele>
        <time>2016-07-24T10:54:11Z</time>
      </trkpt>
      <trkpt lat="42.41553" lon="0.10032">
        <ele>733.8</ele>
        <time>2016-07-24T10:54:13Z</time>
      </trkpt>
      <trkpt lat="42.41555" lon="0.10039">
        <ele>734.7</ele>
        <time>2016-07-24T10:54:15Z</time>
      </trkpt>
      <trkpt lat="42.41557" lon="0.10042">
        <ele>735.2</ele>
        <time>2016-07-24T10:54:16Z</time>
      </trkpt>
      <trkpt lat="42.41559" lon="0.10045">
        <ele>735.7</ele>
        <time>2016-07-24T10:54:17Z</time>
      </trkpt>
      <trkpt lat="42.41561" lon="0.10048">
        <ele>736.2</ele>
        <time>2016-07-24T10:54:18Z</time>
      </trkpt>
      <trkpt lat="42.41563" lon="0.10051">
        <ele>736.7</ele>
        <time>2016-07-24T10:54:19Z</time>
      </trkpt>
      <trkpt lat="42.41565" lon="0.10054">
        <ele>737.2</ele>
        <time>2016-07-24T10:54:20Z</time>
      </trkpt>
      <trkpt lat="42.41567" lon="0.10058">
        <ele>737.8</ele>
        <time>2016-07-24T10:54:21Z</time>
      </trkpt>
      <trkpt lat="42.4157" lon="0.1006">
        <ele>738.3</ele>
        <time>2016-07-24T10:54:22Z</time>
      </trkpt>
      <trkpt lat="42.41572" lon="0.10063">
        <ele>738.8</ele>
        <time>2016-07-24T10:54:23Z</time>
      </trkpt>
      <trkpt lat="42.41575" lon="0.10068">
        <ele>739.3</ele>
        <time>2016-07-24T10:54:25Z</time>
      </trkpt>
      <trkpt lat="42.41577" lon="0.10074">
        <ele>739.7</ele>
        <time>2016-07-24T10:54:27Z</time>
      </trkpt>
      <trkpt lat="42.41579" lon="0.10077">
        <ele>740.1</ele>
        <time>2016-07-24T10:54:28Z</time>
      </trkpt>
      <trkpt lat="42.41583" lon="0.1008">
        <ele>740.9</ele>
        <time>2016-07-24T10:54:30Z</time>
      </trkpt>
      <trkpt lat="42.41587" lon="0.10082">
        <ele>741.7</ele>
        <time>2016-07-24T10:54:32Z</time>
      </trkpt>
      <trkpt lat="42.41591" lon="0.10084">
        <ele>742.3</ele>
        <time>2016-07-24T10:54:34Z</time>
      </trkpt>
      <trkpt lat="42.41593" lon="0.10086">
        <ele>742.7</ele>
        <time>2016-07-24T10:54:36Z</time>
      </trkpt>
      <trkpt lat="42.41591" lon="0.10083">
        <ele>742.4</ele>
        <time>2016-07-24T10:54:52Z</time>
      </trkpt>
      <trkpt lat="42.41588" lon="0.1008">
        <ele>742</ele>
        <time>2016-07-24T10:54:54Z</time>
      </trkpt>
      <trkpt lat="42.41585" lon="0.10077">
        <ele>741.3</ele>
        <time>2016-07-24T10:54:56Z</time>
      </trkpt>
      <trkpt lat="42.4158" lon="0.10074">
        <ele>740.3</ele>
        <time>2016-07-24T10:54:58Z</time>
      </trkpt>
      <trkpt lat="42.41577" lon="0.10071">
        <ele>739.9</ele>
        <time>2016-07-24T10:54:59Z</time>
      </trkpt>
      <trkpt lat="42.41575" lon="0.10068">
        <ele>739.5</ele>
        <time>2016-07-24T10:55:00Z</time>
      </trkpt>
      <trkpt lat="42.41574" lon="0.10065">
        <ele>739.2</ele>
        <time>2016-07-24T10:55:01Z</time>
      </trkpt>
      <trkpt lat="42.41572" lon="0.10062">
        <ele>739</ele>
        <time>2016-07-24T10:55:02Z</time>
      </trkpt>
      <trkpt lat="42.41571" lon="0.10058">
        <ele>738.7</ele>
        <time>2016-07-24T10:55:03Z</time>
      </trkpt>
      <trkpt lat="42.41569" lon="0.10055">
        <ele>738.3</ele>
        <time>2016-07-24T10:55:04Z</time>
      </trkpt>
      <trkpt lat="42.41567" lon="0.10052">
        <ele>737.7</ele>
        <time>2016-07-24T10:55:05Z</time>
      </trkpt>
      <trkpt lat="42.41564" lon="0.1005">
        <ele>737.2</ele>
        <time>2016-07-24T10:55:06Z</time>
      </trkpt>
      <trkpt lat="42.41563" lon="0.10047">
        <ele>736.7</ele>
        <time>2016-07-24T10:55:07Z</time>
      </trkpt>
      <trkpt lat="42.41561" lon="0.10044">
        <ele>736.2</ele>
        <time>2016-07-24T10:55:09Z</time>
      </trkpt>
      <trkpt lat="42.41558" lon="0.10046">
        <ele>735.5</ele>
        <time>2016-07-24T10:55:13Z</time>
      </trkpt>
      <trkpt lat="42.41558" lon="0.10039">
        <ele>735.3</ele>
        <time>2016-07-24T10:55:24Z</time>
      </trkpt>
      <trkpt lat="42.41557" lon="0.10034">
        <ele>735</ele>
        <time>2016-07-24T10:55:35Z</time>
      </trkpt>
      <trkpt lat="42.41556" lon="0.10028">
        <ele>734.3</ele>
        <time>2016-07-24T10:55:37Z</time>
      </trkpt>
      <trkpt lat="42.41553" lon="0.10022">
        <ele>733.2</ele>
        <time>2016-07-24T10:55:39Z</time>
      </trkpt>
      <trkpt lat="42.41551" lon="0.10018">
        <ele>732.5</ele>
        <time>2016-07-24T10:55:41Z</time>
      </trkpt>
      <trkpt lat="42.41549" lon="0.10021">
        <ele>732</ele>
        <time>2016-07-24T10:55:52Z</time>
      </trkpt>
      <trkpt lat="42.4155" lon="0.10027">
        <ele>732.4</ele>
        <time>2016-07-24T10:55:57Z</time>
      </trkpt>
      <trkpt lat="42.4155" lon="0.10031">
        <ele>732.8</ele>
        <time>2016-07-24T10:55:59Z</time>
      </trkpt>
      <trkpt lat="42.41552" lon="0.10036">
        <ele>733.6</ele>
        <time>2016-07-24T10:56:01Z</time>
      </trkpt>
      <trkpt lat="42.41553" lon="0.10041">
        <ele>734</ele>
        <time>2016-07-24T10:56:03Z</time>
      </trkpt>
      <trkpt lat="42.41552" lon="0.10045">
        <ele>734</ele>
        <time>2016-07-24T10:56:04Z</time>
      </trkpt>
      <trkpt lat="42.41552" lon="0.1005">
        <ele>733.9</ele>
        <time>2016-07-24T10:56:05Z</time>
      </trkpt>
      <trkpt lat="42.41552" lon="0.10054">
        <ele>733.9</ele>
        <time>2016-07-24T10:56:06Z</time>
      </trkpt>
      <trkpt lat="42.41551" lon="0.1006">
        <ele>733.7</ele>
        <time>2016-07-24T10:56:07Z</time>
      </trkpt>
      <trkpt lat="42.41549" lon="0.10066">
        <ele>733.2</ele>
        <time>2016-07-24T10:56:08Z</time>
      </trkpt>
      <trkpt lat="42.41545" lon="0.10072">
        <ele>732.4</ele>
        <time>2016-07-24T10:56:09Z</time>
      </trkpt>
      <trkpt lat="42.4154" lon="0.10076">
        <ele>731.5</ele>
        <time>2016-07-24T10:56:10Z</time>
      </trkpt>
      <trkpt lat="42.41535" lon="0.10079">
        <ele>730.9</ele>
        <time>2016-07-24T10:56:11Z</time>
      </trkpt>
      <trkpt lat="42.41533" lon="0.10081">
        <ele>730.5</ele>
        <time>2016-07-24T10:56:12Z</time>
      </trkpt>
      <trkpt lat="42.4153" lon="0.10086">
        <ele>730.2</ele>
        <time>2016-07-24T10:56:14Z</time>
      </trkpt>
      <trkpt lat="42.41528" lon="0.1009">
        <ele>730.2</ele>
        <time>2016-07-24T10:56:16Z</time>
      </trkpt>
      <trkpt lat="42.41527" lon="0.10093">
        <ele>730.2</ele>
        <time>2016-07-24T10:56:18Z</time>
      </trkpt>
      <trkpt lat="42.41525" lon="0.10099">
        <ele>730.2</ele>
        <time>2016-07-24T10:56:20Z</time>
      </trkpt>
      <trkpt lat="42.41524" lon="0.10103">
        <ele>730.3</ele>
        <time>2016-07-24T10:56:21Z</time>
      </trkpt>
      <trkpt lat="42.41522" lon="0.10109">
        <ele>730.4</ele>
        <time>2016-07-24T10:56:23Z</time>
      </trkpt>
      <trkpt lat="42.4152" lon="0.10114">
        <ele>730.5</ele>
        <time>2016-07-24T10:56:25Z</time>
      </trkpt>
      <trkpt lat="42.41518" lon="0.10119">
        <ele>730.6</ele>
        <time>2016-07-24T10:56:27Z</time>
      </trkpt>
      <trkpt lat="42.41514" lon="0.10123">
        <ele>730.5</ele>
        <time>2016-07-24T10:56:29Z</time>
      </trkpt>
      <trkpt lat="42.41511" lon="0.10125">
        <ele>730.4</ele>
        <time>2016-07-24T10:56:30Z</time>
      </trkpt>
      <trkpt lat="42.41508" lon="0.1013">
        <ele>730.1</ele>
        <time>2016-07-24T10:56:32Z</time>
      </trkpt>
      <trkpt lat="42.41507" lon="0.10133">
        <ele>730</ele>
        <time>2016-07-24T10:56:33Z</time>
      </trkpt>
      <trkpt lat="42.41506" lon="0.10138">
        <ele>729.9</ele>
        <time>2016-07-24T10:56:34Z</time>
      </trkpt>
      <trkpt lat="42.41505" lon="0.10142">
        <ele>729.9</ele>
        <time>2016-07-24T10:56:35Z</time>
      </trkpt>
      <trkpt lat="42.41504" lon="0.10146">
        <ele>729.8</ele>
        <time>2016-07-24T10:56:36Z</time>
      </trkpt>
      <trkpt lat="42.41503" lon="0.10149">
        <ele>729.8</ele>
        <time>2016-07-24T10:56:37Z</time>
      </trkpt>
      <trkpt lat="42.41501" lon="0.10153">
        <ele>729.7</ele>
        <time>2016-07-24T10:56:38Z</time>
      </trkpt>
      <trkpt lat="42.41499" lon="0.10156">
        <ele>729.6</ele>
        <time>2016-07-24T10:56:39Z</time>
      </trkpt>
      <trkpt lat="42.41497" lon="0.10159">
        <ele>729.6</ele>
        <time>2016-07-24T10:56:40Z</time>
      </trkpt>
      <trkpt lat="42.41494" lon="0.10165">
        <ele>729.6</ele>
        <time>2016-07-24T10:56:42Z</time>
      </trkpt>
      <trkpt lat="42.41493" lon="0.1017">
        <ele>729.7</ele>
        <time>2016-07-24T10:56:44Z</time>
      </trkpt>
      <trkpt lat="42.4149" lon="0.10176">
        <ele>729.8</ele>
        <time>2016-07-24T10:56:46Z</time>
      </trkpt>
      <trkpt lat="42.41489" lon="0.10182">
        <ele>729.9</ele>
        <time>2016-07-24T10:56:48Z</time>
      </trkpt>
      <trkpt lat="42.41491" lon="0.10189">
        <ele>730</ele>
        <time>2016-07-24T10:56:50Z</time>
      </trkpt>
      <trkpt lat="42.41494" lon="0.10192">
        <ele>730</ele>
        <time>2016-07-24T10:56:51Z</time>
      </trkpt>
      <trkpt lat="42.41498" lon="0.10195">
        <ele>730</ele>
        <time>2016-07-24T10:56:52Z</time>
      </trkpt>
      <trkpt lat="42.41502" lon="0.10197">
        <ele>729.9</ele>
        <time>2016-07-24T10:56:53Z</time>
      </trkpt>
      <trkpt lat="42.41506" lon="0.10198">
        <ele>729.7</ele>
        <time>2016-07-24T10:56:54Z</time>
      </trkpt>
      <trkpt lat="42.4151" lon="0.10198">
        <ele>729.6</ele>
        <time>2016-07-24T10:56:55Z</time>
      </trkpt>
      <trkpt lat="42.41515" lon="0.10197">
        <ele>729.5</ele>
        <time>2016-07-24T10:56:56Z</time>
      </trkpt>
      <trkpt lat="42.41519" lon="0.10196">
        <ele>729.4</ele>
        <time>2016-07-24T10:56:57Z</time>
      </trkpt>
      <trkpt lat="42.41522" lon="0.10197">
        <ele>729.3</ele>
        <time>2016-07-24T10:56:58Z</time>
      </trkpt>
      <trkpt lat="42.41525" lon="0.10198">
        <ele>729.2</ele>
        <time>2016-07-24T10:56:59Z</time>
      </trkpt>
      <trkpt lat="42.4153" lon="0.10202">
        <ele>728.8</ele>
        <time>2016-07-24T10:57:01Z</time>
      </trkpt>
      <trkpt lat="42.41532" lon="0.10205">
        <ele>728.6</ele>
        <time>2016-07-24T10:57:02Z</time>
      </trkpt>
      <trkpt lat="42.41536" lon="0.10206">
        <ele>728.4</ele>
        <time>2016-07-24T10:57:03Z</time>
      </trkpt>
      <trkpt lat="42.41539" lon="0.10206">
        <ele>728.2</ele>
        <time>2016-07-24T10:57:04Z</time>
      </trkpt>
      <trkpt lat="42.41543" lon="0.10206">
        <ele>728.1</ele>
        <time>2016-07-24T10:57:05Z</time>
      </trkpt>
      <trkpt lat="42.41546" lon="0.10205">
        <ele>728.2</ele>
        <time>2016-07-24T10:57:06Z</time>
      </trkpt>
      <trkpt lat="42.4155" lon="0.10203">
        <ele>728.2</ele>
        <time>2016-07-24T10:57:07Z</time>
      </trkpt>
      <trkpt lat="42.41554" lon="0.10203">
        <ele>728.2</ele>
        <time>2016-07-24T10:57:08Z</time>
      </trkpt>
      <trkpt lat="42.41557" lon="0.10202">
        <ele>728.2</ele>
        <time>2016-07-24T10:57:09Z</time>
      </trkpt>
      <trkpt lat="42.41559" lon="0.10202">
        <ele>728.2</ele>
        <time>2016-07-24T10:57:10Z</time>
      </trkpt>
      <trkpt lat="42.41562" lon="0.10202">
        <ele>728.2</ele>
        <time>2016-07-24T10:57:11Z</time>
      </trkpt>
      <trkpt lat="42.41567" lon="0.10202">
        <ele>728.1</ele>
        <time>2016-07-24T10:57:12Z</time>
      </trkpt>
      <trkpt lat="42.41571" lon="0.10204">
        <ele>727.8</ele>
        <time>2016-07-24T10:57:13Z</time>
      </trkpt>
      <trkpt lat="42.41575" lon="0.10205">
        <ele>727.6</ele>
        <time>2016-07-24T10:57:14Z</time>
      </trkpt>
      <trkpt lat="42.41579" lon="0.10205">
        <ele>727.5</ele>
        <time>2016-07-24T10:57:16Z</time>
      </trkpt>
      <trkpt lat="42.41581" lon="0.10202">
        <ele>727.9</ele>
        <time>2016-07-24T10:57:18Z</time>
      </trkpt>
      <trkpt lat="42.41586" lon="0.102">
        <ele>728.2</ele>
        <time>2016-07-24T10:57:20Z</time>
      </trkpt>
      <trkpt lat="42.4159" lon="0.10199">
        <ele>728.4</ele>
        <time>2016-07-24T10:57:21Z</time>
      </trkpt>
      <trkpt lat="42.41594" lon="0.10198">
        <ele>728.5</ele>
        <time>2016-07-24T10:57:22Z</time>
      </trkpt>
      <trkpt lat="42.41598" lon="0.10197">
        <ele>728.6</ele>
        <time>2016-07-24T10:57:23Z</time>
      </trkpt>
      <trkpt lat="42.41602" lon="0.10197">
        <ele>728.6</ele>
        <time>2016-07-24T10:57:24Z</time>
      </trkpt>
      <trkpt lat="42.41606" lon="0.10196">
        <ele>728.7</ele>
        <time>2016-07-24T10:57:25Z</time>
      </trkpt>
      <trkpt lat="42.41609" lon="0.10195">
        <ele>729</ele>
        <time>2016-07-24T10:57:26Z</time>
      </trkpt>
      <trkpt lat="42.41612" lon="0.10194">
        <ele>729.3</ele>
        <time>2016-07-24T10:57:27Z</time>
      </trkpt>
      <trkpt lat="42.41615" lon="0.10192">
        <ele>729.6</ele>
        <time>2016-07-24T10:57:28Z</time>
      </trkpt>
      <trkpt lat="42.41619" lon="0.10191">
        <ele>729.9</ele>
        <time>2016-07-24T10:57:29Z</time>
      </trkpt>
      <trkpt lat="42.41623" lon="0.1019">
        <ele>730.3</ele>
        <time>2016-07-24T10:57:30Z</time>
      </trkpt>
      <trkpt lat="42.41627" lon="0.10187">
        <ele>730.5</ele>
        <time>2016-07-24T10:57:31Z</time>
      </trkpt>
      <trkpt lat="42.41631" lon="0.10185">
        <ele>730.6</ele>
        <time>2016-07-24T10:57:32Z</time>
      </trkpt>
      <trkpt lat="42.41635" lon="0.10182">
        <ele>730.8</ele>
        <time>2016-07-24T10:57:33Z</time>
      </trkpt>
      <trkpt lat="42.41639" lon="0.10179">
        <ele>730.8</ele>
        <time>2016-07-24T10:57:34Z</time>
      </trkpt>
      <trkpt lat="42.41643" lon="0.10178">
        <ele>730.5</ele>
        <time>2016-07-24T10:57:35Z</time>
      </trkpt>
      <trkpt lat="42.41647" lon="0.10178">
        <ele>729.9</ele>
        <time>2016-07-24T10:57:36Z</time>
      </trkpt>
      <trkpt lat="42.4165" lon="0.10179">
        <ele>729.3</ele>
        <time>2016-07-24T10:57:37Z</time>
      </trkpt>
      <trkpt lat="42.41653" lon="0.10179">
        <ele>728.8</ele>
        <time>2016-07-24T10:57:38Z</time>
      </trkpt>
      <trkpt lat="42.41657" lon="0.10178">
        <ele>728.6</ele>
        <time>2016-07-24T10:57:39Z</time>
      </trkpt>
      <trkpt lat="42.4166" lon="0.10177">
        <ele>728.7</ele>
        <time>2016-07-24T10:57:40Z</time>
      </trkpt>
      <trkpt lat="42.41663" lon="0.10174">
        <ele>728.8</ele>
        <time>2016-07-24T10:57:41Z</time>
      </trkpt>
      <trkpt lat="42.41666" lon="0.10173">
        <ele>728.9</ele>
        <time>2016-07-24T10:57:42Z</time>
      </trkpt>
      <trkpt lat="42.41668" lon="0.10171">
        <ele>729</ele>
        <time>2016-07-24T10:57:43Z</time>
      </trkpt>
      <trkpt lat="42.41671" lon="0.10168">
        <ele>729.3</ele>
        <time>2016-07-24T10:57:44Z</time>
      </trkpt>
      <trkpt lat="42.41673" lon="0.10166">
        <ele>729.7</ele>
        <time>2016-07-24T10:57:45Z</time>
      </trkpt>
      <trkpt lat="42.41675" lon="0.10163">
        <ele>730.3</ele>
        <time>2016-07-24T10:57:46Z</time>
      </trkpt>
      <trkpt lat="42.41677" lon="0.1016">
        <ele>730.7</ele>
        <time>2016-07-24T10:57:47Z</time>
      </trkpt>
      <trkpt lat="42.41682" lon="0.10158">
        <ele>730.6</ele>
        <time>2016-07-24T10:57:49Z</time>
      </trkpt>
      <trkpt lat="42.41687" lon="0.1016">
        <ele>729.5</ele>
        <time>2016-07-24T10:57:51Z</time>
      </trkpt>
      <trkpt lat="42.4169" lon="0.10161">
        <ele>728.9</ele>
        <time>2016-07-24T10:57:52Z</time>
      </trkpt>
      <trkpt lat="42.41693" lon="0.10162">
        <ele>728.4</ele>
        <time>2016-07-24T10:57:53Z</time>
      </trkpt>
      <trkpt lat="42.41696" lon="0.10161">
        <ele>728</ele>
        <time>2016-07-24T10:57:54Z</time>
      </trkpt>
      <trkpt lat="42.41701" lon="0.1016">
        <ele>727.9</ele>
        <time>2016-07-24T10:57:56Z</time>
      </trkpt>
      <trkpt lat="42.41705" lon="0.10157">
        <ele>728</ele>
        <time>2016-07-24T10:57:58Z</time>
      </trkpt>
      <trkpt lat="42.41709" lon="0.10155">
        <ele>728.1</ele>
        <time>2016-07-24T10:58:00Z</time>
      </trkpt>
      <trkpt lat="42.41713" lon="0.10152">
        <ele>728.1</ele>
        <time>2016-07-24T10:58:02Z</time>
      </trkpt>
      <trkpt lat="42.41716" lon="0.1015">
        <ele>728.1</ele>
        <time>2016-07-24T10:58:04Z</time>
      </trkpt>
      <trkpt lat="42.41719" lon="0.10149">
        <ele>727.9</ele>
        <time>2016-07-24T10:58:06Z</time>
      </trkpt>
      <trkpt lat="42.41721" lon="0.10147">
        <ele>727.8</ele>
        <time>2016-07-24T10:58:08Z</time>
      </trkpt>
      <trkpt lat="42.41724" lon="0.10145">
        <ele>727.6</ele>
        <time>2016-07-24T10:58:10Z</time>
      </trkpt>
      <trkpt lat="42.41727" lon="0.10143">
        <ele>727.7</ele>
        <time>2016-07-24T10:58:12Z</time>
      </trkpt>
      <trkpt lat="42.4173" lon="0.1014">
        <ele>727.9</ele>
        <time>2016-07-24T10:58:14Z</time>
      </trkpt>
      <trkpt lat="42.41733" lon="0.10136">
        <ele>728.2</ele>
        <time>2016-07-24T10:58:16Z</time>
      </trkpt>
      <trkpt lat="42.41736" lon="0.10132">
        <ele>728.8</ele>
        <time>2016-07-24T10:58:18Z</time>
      </trkpt>
      <trkpt lat="42.41738" lon="0.10129">
        <ele>729.2</ele>
        <time>2016-07-24T10:58:19Z</time>
      </trkpt>
      <trkpt lat="42.4174" lon="0.10126">
        <ele>729.4</ele>
        <time>2016-07-24T10:58:20Z</time>
      </trkpt>
      <trkpt lat="42.41743" lon="0.10124">
        <ele>729.6</ele>
        <time>2016-07-24T10:58:21Z</time>
      </trkpt>
      <trkpt lat="42.41745" lon="0.10121">
        <ele>729.7</ele>
        <time>2016-07-24T10:58:22Z</time>
      </trkpt>
      <trkpt lat="42.41747" lon="0.10118">
        <ele>729.9</ele>
        <time>2016-07-24T10:58:23Z</time>
      </trkpt>
      <trkpt lat="42.4175" lon="0.10115">
        <ele>730.2</ele>
        <time>2016-07-24T10:58:24Z</time>
      </trkpt>
      <trkpt lat="42.41753" lon="0.10111">
        <ele>730.3</ele>
        <time>2016-07-24T10:58:25Z</time>
      </trkpt>
      <trkpt lat="42.41756" lon="0.10107">
        <ele>730.5</ele>
        <time>2016-07-24T10:58:26Z</time>
      </trkpt>
      <trkpt lat="42.41759" lon="0.10104">
        <ele>730.6</ele>
        <time>2016-07-24T10:58:27Z</time>
      </trkpt>
      <trkpt lat="42.41762" lon="0.101">
        <ele>730.9</ele>
        <time>2016-07-24T10:58:28Z</time>
      </trkpt>
      <trkpt lat="42.41764" lon="0.10096">
        <ele>731.3</ele>
        <time>2016-07-24T10:58:29Z</time>
      </trkpt>
      <trkpt lat="42.41766" lon="0.10092">
        <ele>731.6</ele>
        <time>2016-07-24T10:58:30Z</time>
      </trkpt>
      <trkpt lat="42.41769" lon="0.10088">
        <ele>731.9</ele>
        <time>2016-07-24T10:58:31Z</time>
      </trkpt>
      <trkpt lat="42.41771" lon="0.10084">
        <ele>732.2</ele>
        <time>2016-07-24T10:58:32Z</time>
      </trkpt>
      <trkpt lat="42.41773" lon="0.10081">
        <ele>732.5</ele>
        <time>2016-07-24T10:58:33Z</time>
      </trkpt>
      <trkpt lat="42.41775" lon="0.10075">
        <ele>733.1</ele>
        <time>2016-07-24T10:58:34Z</time>
      </trkpt>
      <trkpt lat="42.41777" lon="0.10069">
        <ele>733.7</ele>
        <time>2016-07-24T10:58:35Z</time>
      </trkpt>
      <trkpt lat="42.4178" lon="0.10063">
        <ele>734.2</ele>
        <time>2016-07-24T10:58:36Z</time>
      </trkpt>
      <trkpt lat="42.41782" lon="0.10057">
        <ele>734.9</ele>
        <time>2016-07-24T10:58:37Z</time>
      </trkpt>
      <trkpt lat="42.41785" lon="0.1005">
        <ele>735.5</ele>
        <time>2016-07-24T10:58:38Z</time>
      </trkpt>
      <trkpt lat="42.41787" lon="0.10043">
        <ele>736.2</ele>
        <time>2016-07-24T10:58:39Z</time>
      </trkpt>
      <trkpt lat="42.4179" lon="0.10036">
        <ele>736.4</ele>
        <time>2016-07-24T10:58:40Z</time>
      </trkpt>
      <trkpt lat="42.41792" lon="0.1003">
        <ele>736.5</ele>
        <time>2016-07-24T10:58:41Z</time>
      </trkpt>
      <trkpt lat="42.41794" lon="0.10023">
        <ele>736.6</ele>
        <time>2016-07-24T10:58:42Z</time>
      </trkpt>
      <trkpt lat="42.41797" lon="0.10017">
        <ele>736.4</ele>
        <time>2016-07-24T10:58:43Z</time>
      </trkpt>
      <trkpt lat="42.41799" lon="0.10011">
        <ele>736</ele>
        <time>2016-07-24T10:58:44Z</time>
      </trkpt>
      <trkpt lat="42.41802" lon="0.10006">
        <ele>735.6</ele>
        <time>2016-07-24T10:58:45Z</time>
      </trkpt>
      <trkpt lat="42.41804" lon="0.09999">
        <ele>735.2</ele>
        <time>2016-07-24T10:58:46Z</time>
      </trkpt>
      <trkpt lat="42.41807" lon="0.09993">
        <ele>735</ele>
        <time>2016-07-24T10:58:47Z</time>
      </trkpt>
      <trkpt lat="42.41809" lon="0.09987">
        <ele>734.9</ele>
        <time>2016-07-24T10:58:48Z</time>
      </trkpt>
      <trkpt lat="42.41811" lon="0.09981">
        <ele>734.8</ele>
        <time>2016-07-24T10:58:49Z</time>
      </trkpt>
      <trkpt lat="42.41813" lon="0.09974">
        <ele>734.6</ele>
        <time>2016-07-24T10:58:50Z</time>
      </trkpt>
      <trkpt lat="42.41815" lon="0.09968">
        <ele>734.3</ele>
        <time>2016-07-24T10:58:51Z</time>
      </trkpt>
      <trkpt lat="42.41817" lon="0.09964">
        <ele>734.1</ele>
        <time>2016-07-24T10:58:52Z</time>
      </trkpt>
      <trkpt lat="42.41818" lon="0.0996">
        <ele>733.7</ele>
        <time>2016-07-24T10:58:54Z</time>
      </trkpt>
      <trkpt lat="42.41821" lon="0.09958">
        <ele>732.6</ele>
        <time>2016-07-24T10:58:57Z</time>
      </trkpt>
      <trkpt lat="42.4182" lon="0.09962">
        <ele>732.3</ele>
        <time>2016-07-24T10:59:04Z</time>
      </trkpt>
      <trkpt lat="42.41819" lon="0.09966">
        <ele>732.8</ele>
        <time>2016-07-24T10:59:16Z</time>
      </trkpt>
      <trkpt lat="42.41817" lon="0.09969">
        <ele>732.9</ele>
        <time>2016-07-24T10:59:18Z</time>
      </trkpt>
      <trkpt lat="42.41816" lon="0.09976">
        <ele>732.5</ele>
        <time>2016-07-24T10:59:20Z</time>
      </trkpt>
      <trkpt lat="42.41816" lon="0.0998">
        <ele>732.2</ele>
        <time>2016-07-24T10:59:21Z</time>
      </trkpt>
      <trkpt lat="42.41815" lon="0.09984">
        <ele>731.9</ele>
        <time>2016-07-24T10:59:22Z</time>
      </trkpt>
      <trkpt lat="42.41815" lon="0.09987">
        <ele>731.7</ele>
        <time>2016-07-24T10:59:23Z</time>
      </trkpt>
      <trkpt lat="42.41814" lon="0.09991">
        <ele>731.6</ele>
        <time>2016-07-24T10:59:24Z</time>
      </trkpt>
      <trkpt lat="42.41813" lon="0.09995">
        <ele>731.4</ele>
        <time>2016-07-24T10:59:25Z</time>
      </trkpt>
      <trkpt lat="42.41812" lon="0.09999">
        <ele>731.1</ele>
        <time>2016-07-24T10:59:26Z</time>
      </trkpt>
      <trkpt lat="42.41812" lon="0.10004">
        <ele>730.7</ele>
        <time>2016-07-24T10:59:27Z</time>
      </trkpt>
      <trkpt lat="42.41811" lon="0.10009">
        <ele>730.2</ele>
        <time>2016-07-24T10:59:28Z</time>
      </trkpt>
      <trkpt lat="42.4181" lon="0.10015">
        <ele>729.9</ele>
        <time>2016-07-24T10:59:29Z</time>
      </trkpt>
      <trkpt lat="42.41809" lon="0.10021">
        <ele>729.8</ele>
        <time>2016-07-24T10:59:30Z</time>
      </trkpt>
      <trkpt lat="42.41808" lon="0.10026">
        <ele>729.7</ele>
        <time>2016-07-24T10:59:31Z</time>
      </trkpt>
      <trkpt lat="42.41807" lon="0.10029">
        <ele>729.5</ele>
        <time>2016-07-24T10:59:32Z</time>
      </trkpt>
      <trkpt lat="42.41806" lon="0.10034">
        <ele>729.4</ele>
        <time>2016-07-24T10:59:34Z</time>
      </trkpt>
      <trkpt lat="42.41805" lon="0.10039">
        <ele>729.2</ele>
        <time>2016-07-24T10:59:36Z</time>
      </trkpt>
      <trkpt lat="42.41804" lon="0.10043">
        <ele>729</ele>
        <time>2016-07-24T10:59:37Z</time>
      </trkpt>
      <trkpt lat="42.41802" lon="0.10048">
        <ele>728.7</ele>
        <time>2016-07-24T10:59:38Z</time>
      </trkpt>
      <trkpt lat="42.418" lon="0.10053">
        <ele>728.7</ele>
        <time>2016-07-24T10:59:39Z</time>
      </trkpt>
      <trkpt lat="42.41798" lon="0.10058">
        <ele>728.5</ele>
        <time>2016-07-24T10:59:40Z</time>
      </trkpt>
      <trkpt lat="42.41797" lon="0.10064">
        <ele>728.1</ele>
        <time>2016-07-24T10:59:41Z</time>
      </trkpt>
      <trkpt lat="42.41796" lon="0.1007">
        <ele>727.4</ele>
        <time>2016-07-24T10:59:42Z</time>
      </trkpt>
      <trkpt lat="42.41795" lon="0.10076">
        <ele>726.4</ele>
        <time>2016-07-24T10:59:43Z</time>
      </trkpt>
      <trkpt lat="42.41796" lon="0.10081">
        <ele>725.2</ele>
        <time>2016-07-24T10:59:44Z</time>
      </trkpt>
      <trkpt lat="42.41795" lon="0.10087">
        <ele>724.1</ele>
        <time>2016-07-24T10:59:45Z</time>
      </trkpt>
      <trkpt lat="42.41795" lon="0.10093">
        <ele>723</ele>
        <time>2016-07-24T10:59:46Z</time>
      </trkpt>
      <trkpt lat="42.41794" lon="0.101">
        <ele>722.2</ele>
        <time>2016-07-24T10:59:47Z</time>
      </trkpt>
      <trkpt lat="42.41792" lon="0.10107">
        <ele>721.6</ele>
        <time>2016-07-24T10:59:48Z</time>
      </trkpt>
      <trkpt lat="42.4179" lon="0.10113">
        <ele>720.9</ele>
        <time>2016-07-24T10:59:49Z</time>
      </trkpt>
      <trkpt lat="42.41787" lon="0.10118">
        <ele>720.4</ele>
        <time>2016-07-24T10:59:50Z</time>
      </trkpt>
      <trkpt lat="42.41785" lon="0.10123">
        <ele>720</ele>
        <time>2016-07-24T10:59:51Z</time>
      </trkpt>
      <trkpt lat="42.41782" lon="0.10128">
        <ele>719.4</ele>
        <time>2016-07-24T10:59:52Z</time>
      </trkpt>
      <trkpt lat="42.41779" lon="0.10133">
        <ele>718.7</ele>
        <time>2016-07-24T10:59:53Z</time>
      </trkpt>
      <trkpt lat="42.41777" lon="0.10138">
        <ele>717.9</ele>
        <time>2016-07-24T10:59:54Z</time>
      </trkpt>
      <trkpt lat="42.41774" lon="0.10143">
        <ele>717.2</ele>
        <time>2016-07-24T10:59:55Z</time>
      </trkpt>
      <trkpt lat="42.41771" lon="0.10148">
        <ele>716.5</ele>
        <time>2016-07-24T10:59:56Z</time>
      </trkpt>
      <trkpt lat="42.41768" lon="0.10153">
        <ele>715.9</ele>
        <time>2016-07-24T10:59:57Z</time>
      </trkpt>
      <trkpt lat="42.41765" lon="0.10158">
        <ele>715.2</ele>
        <time>2016-07-24T10:59:58Z</time>
      </trkpt>
      <trkpt lat="42.41763" lon="0.10163">
        <ele>714.3</ele>
        <time>2016-07-24T10:59:59Z</time>
      </trkpt>
      <trkpt lat="42.41761" lon="0.10168">
        <ele>713.4</ele>
        <time>2016-07-24T11:00:00Z</time>
      </trkpt>
      <trkpt lat="42.41759" lon="0.10172">
        <ele>712.5</ele>
        <time>2016-07-24T11:00:01Z</time>
      </trkpt>
      <trkpt lat="42.41757" lon="0.10176">
        <ele>711.9</ele>
        <time>2016-07-24T11:00:02Z</time>
      </trkpt>
      <trkpt lat="42.41755" lon="0.1018">
        <ele>711.4</ele>
        <time>2016-07-24T11:00:04Z</time>
      </trkpt>
      <trkpt lat="42.41753" lon="0.10185">
        <ele>710.5</ele>
        <time>2016-07-24T11:00:07Z</time>
      </trkpt>
      <trkpt lat="42.41751" lon="0.10188">
        <ele>710.1</ele>
        <time>2016-07-24T11:00:13Z</time>
      </trkpt>
      <trkpt lat="42.41748" lon="0.1019">
        <ele>710.1</ele>
        <time>2016-07-24T11:00:17Z</time>
      </trkpt>
      <trkpt lat="42.41744" lon="0.10191">
        <ele>710.5</ele>
        <time>2016-07-24T11:00:21Z</time>
      </trkpt>
      <trkpt lat="42.41741" lon="0.10193">
        <ele>710.7</ele>
        <time>2016-07-24T11:00:23Z</time>
      </trkpt>
      <trkpt lat="42.41737" lon="0.10197">
        <ele>710.4</ele>
        <time>2016-07-24T11:00:25Z</time>
      </trkpt>
      <trkpt lat="42.41735" lon="0.10199">
        <ele>710.2</ele>
        <time>2016-07-24T11:00:26Z</time>
      </trkpt>
      <trkpt lat="42.41733" lon="0.10201">
        <ele>710.1</ele>
        <time>2016-07-24T11:00:27Z</time>
      </trkpt>
      <trkpt lat="42.4173" lon="0.10203">
        <ele>710</ele>
        <time>2016-07-24T11:00:28Z</time>
      </trkpt>
      <trkpt lat="42.41726" lon="0.10206">
        <ele>710</ele>
        <time>2016-07-24T11:00:30Z</time>
      </trkpt>
      <trkpt lat="42.41723" lon="0.10208">
        <ele>709.9</ele>
        <time>2016-07-24T11:00:32Z</time>
      </trkpt>
      <trkpt lat="42.41719" lon="0.1021">
        <ele>710.6</ele>
        <time>2016-07-24T11:00:34Z</time>
      </trkpt>
      <trkpt lat="42.41714" lon="0.10212">
        <ele>711.4</ele>
        <time>2016-07-24T11:00:36Z</time>
      </trkpt>
      <trkpt lat="42.41711" lon="0.10213">
        <ele>711.9</ele>
        <time>2016-07-24T11:00:37Z</time>
      </trkpt>
      <trkpt lat="42.41707" lon="0.10215">
        <ele>712.4</ele>
        <time>2016-07-24T11:00:39Z</time>
      </trkpt>
      <trkpt lat="42.41703" lon="0.10217">
        <ele>712.7</ele>
        <time>2016-07-24T11:00:41Z</time>
      </trkpt>
      <trkpt lat="42.417" lon="0.1022">
        <ele>712.9</ele>
        <time>2016-07-24T11:00:44Z</time>
      </trkpt>
      <trkpt lat="42.41698" lon="0.10223">
        <ele>712.8</ele>
        <time>2016-07-24T11:00:46Z</time>
      </trkpt>
      <trkpt lat="42.41698" lon="0.10227">
        <ele>712.3</ele>
        <time>2016-07-24T11:00:48Z</time>
      </trkpt>
      <trkpt lat="42.417" lon="0.10233">
        <ele>711.1</ele>
        <time>2016-07-24T11:00:50Z</time>
      </trkpt>
      <trkpt lat="42.41702" lon="0.10239">
        <ele>710.2</ele>
        <time>2016-07-24T11:00:52Z</time>
      </trkpt>
      <trkpt lat="42.41704" lon="0.10243">
        <ele>709.6</ele>
        <time>2016-07-24T11:00:54Z</time>
      </trkpt>
      <trkpt lat="42.41705" lon="0.10248">
        <ele>708.6</ele>
        <time>2016-07-24T11:00:56Z</time>
      </trkpt>
      <trkpt lat="42.41707" lon="0.10255">
        <ele>707.7</ele>
        <time>2016-07-24T11:00:58Z</time>
      </trkpt>
      <trkpt lat="42.41707" lon="0.1026">
        <ele>707</ele>
        <time>2016-07-24T11:01:00Z</time>
      </trkpt>
      <trkpt lat="42.41708" lon="0.10265">
        <ele>706.3</ele>
        <time>2016-07-24T11:01:02Z</time>
      </trkpt>
      <trkpt lat="42.41709" lon="0.10271">
        <ele>705.4</ele>
        <time>2016-07-24T11:01:04Z</time>
      </trkpt>
      <trkpt lat="42.4171" lon="0.10277">
        <ele>704.4</ele>
        <time>2016-07-24T11:01:06Z</time>
      </trkpt>
      <trkpt lat="42.4171" lon="0.10282">
        <ele>703.7</ele>
        <time>2016-07-24T11:01:08Z</time>
      </trkpt>
      <trkpt lat="42.4171" lon="0.10287">
        <ele>702.9</ele>
        <time>2016-07-24T11:01:10Z</time>
      </trkpt>
      <trkpt lat="42.41711" lon="0.10292">
        <ele>702</ele>
        <time>2016-07-24T11:01:12Z</time>
      </trkpt>
      <trkpt lat="42.41711" lon="0.10296">
        <ele>701.5</ele>
        <time>2016-07-24T11:01:14Z</time>
      </trkpt>
      <trkpt lat="42.4171" lon="0.10303">
        <ele>701.2</ele>
        <time>2016-07-24T11:01:19Z</time>
      </trkpt>
      <trkpt lat="42.41709" lon="0.10307">
        <ele>700.9</ele>
        <time>2016-07-24T11:01:20Z</time>
      </trkpt>
      <trkpt lat="42.41709" lon="0.10311">
        <ele>700.7</ele>
        <time>2016-07-24T11:01:21Z</time>
      </trkpt>
      <trkpt lat="42.41708" lon="0.10318">
        <ele>700.3</ele>
        <time>2016-07-24T11:01:23Z</time>
      </trkpt>
      <trkpt lat="42.41707" lon="0.10324">
        <ele>699.7</ele>
        <time>2016-07-24T11:01:25Z</time>
      </trkpt>
      <trkpt lat="42.41707" lon="0.10328">
        <ele>699.4</ele>
        <time>2016-07-24T11:01:26Z</time>
      </trkpt>
      <trkpt lat="42.41706" lon="0.10332">
        <ele>699</ele>
        <time>2016-07-24T11:01:27Z</time>
      </trkpt>
      <trkpt lat="42.41706" lon="0.10336">
        <ele>698.7</ele>
        <time>2016-07-24T11:01:28Z</time>
      </trkpt>
      <trkpt lat="42.41705" lon="0.10341">
        <ele>698.4</ele>
        <time>2016-07-24T11:01:29Z</time>
      </trkpt>
      <trkpt lat="42.41704" lon="0.10345">
        <ele>698.2</ele>
        <time>2016-07-24T11:01:30Z</time>
      </trkpt>
      <trkpt lat="42.41702" lon="0.10348">
        <ele>698.2</ele>
        <time>2016-07-24T11:01:31Z</time>
      </trkpt>
      <trkpt lat="42.417" lon="0.10352">
        <ele>698.1</ele>
        <time>2016-07-24T11:01:32Z</time>
      </trkpt>
      <trkpt lat="42.41699" lon="0.10356">
        <ele>698</ele>
        <time>2016-07-24T11:01:33Z</time>
      </trkpt>
      <trkpt lat="42.41698" lon="0.1036">
        <ele>697.8</ele>
        <time>2016-07-24T11:01:34Z</time>
      </trkpt>
      <trkpt lat="42.41698" lon="0.10365">
        <ele>697.5</ele>
        <time>2016-07-24T11:01:35Z</time>
      </trkpt>
      <trkpt lat="42.41698" lon="0.1037">
        <ele>697</ele>
        <time>2016-07-24T11:01:36Z</time>
      </trkpt>
      <trkpt lat="42.41697" lon="0.10375">
        <ele>696.7</ele>
        <time>2016-07-24T11:01:37Z</time>
      </trkpt>
      <trkpt lat="42.41696" lon="0.1038">
        <ele>695.9</ele>
        <time>2016-07-24T11:01:38Z</time>
      </trkpt>
      <trkpt lat="42.41695" lon="0.10385">
        <ele>695.2</ele>
        <time>2016-07-24T11:01:39Z</time>
      </trkpt>
      <trkpt lat="42.41694" lon="0.10389">
        <ele>694.7</ele>
        <time>2016-07-24T11:01:40Z</time>
      </trkpt>
      <trkpt lat="42.41693" lon="0.10393">
        <ele>694.2</ele>
        <time>2016-07-24T11:01:41Z</time>
      </trkpt>
      <trkpt lat="42.41692" lon="0.10396">
        <ele>693.8</ele>
        <time>2016-07-24T11:01:42Z</time>
      </trkpt>
      <trkpt lat="42.41691" lon="0.10401">
        <ele>693.1</ele>
        <time>2016-07-24T11:01:43Z</time>
      </trkpt>
      <trkpt lat="42.4169" lon="0.10406">
        <ele>692.4</ele>
        <time>2016-07-24T11:01:44Z</time>
      </trkpt>
      <trkpt lat="42.41689" lon="0.10411">
        <ele>691.9</ele>
        <time>2016-07-24T11:01:45Z</time>
      </trkpt>
      <trkpt lat="42.41687" lon="0.10415">
        <ele>691.6</ele>
        <time>2016-07-24T11:01:46Z</time>
      </trkpt>
      <trkpt lat="42.41685" lon="0.10419">
        <ele>691.5</ele>
        <time>2016-07-24T11:01:47Z</time>
      </trkpt>
      <trkpt lat="42.41683" lon="0.10422">
        <ele>691.4</ele>
        <time>2016-07-24T11:01:48Z</time>
      </trkpt>
      <trkpt lat="42.41682" lon="0.10426">
        <ele>691.2</ele>
        <time>2016-07-24T11:01:49Z</time>
      </trkpt>
      <trkpt lat="42.41681" lon="0.10431">
        <ele>690.6</ele>
        <time>2016-07-24T11:01:50Z</time>
      </trkpt>
      <trkpt lat="42.41681" lon="0.10437">
        <ele>689.8</ele>
        <time>2016-07-24T11:01:51Z</time>
      </trkpt>
      <trkpt lat="42.4168" lon="0.10442">
        <ele>689.1</ele>
        <time>2016-07-24T11:01:52Z</time>
      </trkpt>
      <trkpt lat="42.41679" lon="0.10446">
        <ele>688.8</ele>
        <time>2016-07-24T11:01:53Z</time>
      </trkpt>
      <trkpt lat="42.41678" lon="0.1045">
        <ele>688.7</ele>
        <time>2016-07-24T11:01:54Z</time>
      </trkpt>
      <trkpt lat="42.41676" lon="0.10454">
        <ele>688.6</ele>
        <time>2016-07-24T11:01:55Z</time>
      </trkpt>
      <trkpt lat="42.41674" lon="0.10459">
        <ele>688.4</ele>
        <time>2016-07-24T11:01:56Z</time>
      </trkpt>
      <trkpt lat="42.41672" lon="0.10464">
        <ele>688</ele>
        <time>2016-07-24T11:01:57Z</time>
      </trkpt>
      <trkpt lat="42.4167" lon="0.10469">
        <ele>687.7</ele>
        <time>2016-07-24T11:01:58Z</time>
      </trkpt>
      <trkpt lat="42.41668" lon="0.10473">
        <ele>687.6</ele>
        <time>2016-07-24T11:01:59Z</time>
      </trkpt>
      <trkpt lat="42.41666" lon="0.10476">
        <ele>687.7</ele>
        <time>2016-07-24T11:02:00Z</time>
      </trkpt>
      <trkpt lat="42.41665" lon="0.1048">
        <ele>687.4</ele>
        <time>2016-07-24T11:02:01Z</time>
      </trkpt>
      <trkpt lat="42.41664" lon="0.10485">
        <ele>686.9</ele>
        <time>2016-07-24T11:02:02Z</time>
      </trkpt>
      <trkpt lat="42.41663" lon="0.10491">
        <ele>686</ele>
        <time>2016-07-24T11:02:03Z</time>
      </trkpt>
      <trkpt lat="42.41661" lon="0.10497">
        <ele>685.1</ele>
        <time>2016-07-24T11:02:04Z</time>
      </trkpt>
      <trkpt lat="42.4166" lon="0.10503">
        <ele>684.4</ele>
        <time>2016-07-24T11:02:05Z</time>
      </trkpt>
      <trkpt lat="42.41659" lon="0.10508">
        <ele>683.9</ele>
        <time>2016-07-24T11:02:06Z</time>
      </trkpt>
      <trkpt lat="42.41657" lon="0.10513">
        <ele>683.4</ele>
        <time>2016-07-24T11:02:07Z</time>
      </trkpt>
      <trkpt lat="42.41656" lon="0.10517">
        <ele>683</ele>
        <time>2016-07-24T11:02:08Z</time>
      </trkpt>
      <trkpt lat="42.41655" lon="0.10523">
        <ele>682.6</ele>
        <time>2016-07-24T11:02:09Z</time>
      </trkpt>
      <trkpt lat="42.41653" lon="0.10528">
        <ele>682.2</ele>
        <time>2016-07-24T11:02:10Z</time>
      </trkpt>
      <trkpt lat="42.41651" lon="0.10533">
        <ele>681.8</ele>
        <time>2016-07-24T11:02:11Z</time>
      </trkpt>
      <trkpt lat="42.4165" lon="0.10538">
        <ele>681.4</ele>
        <time>2016-07-24T11:02:12Z</time>
      </trkpt>
      <trkpt lat="42.41649" lon="0.10544">
        <ele>680.7</ele>
        <time>2016-07-24T11:02:13Z</time>
      </trkpt>
      <trkpt lat="42.41648" lon="0.10549">
        <ele>679.7</ele>
        <time>2016-07-24T11:02:14Z</time>
      </trkpt>
      <trkpt lat="42.41648" lon="0.10555">
        <ele>678.5</ele>
        <time>2016-07-24T11:02:15Z</time>
      </trkpt>
      <trkpt lat="42.41647" lon="0.10562">
        <ele>677.4</ele>
        <time>2016-07-24T11:02:16Z</time>
      </trkpt>
      <trkpt lat="42.41646" lon="0.10568">
        <ele>676.6</ele>
        <time>2016-07-24T11:02:17Z</time>
      </trkpt>
      <trkpt lat="42.41644" lon="0.10575">
        <ele>676.1</ele>
        <time>2016-07-24T11:02:18Z</time>
      </trkpt>
      <trkpt lat="42.41641" lon="0.1058">
        <ele>675.8</ele>
        <time>2016-07-24T11:02:19Z</time>
      </trkpt>
      <trkpt lat="42.4164" lon="0.10585">
        <ele>675.5</ele>
        <time>2016-07-24T11:02:20Z</time>
      </trkpt>
      <trkpt lat="42.41638" lon="0.10589">
        <ele>675.1</ele>
        <time>2016-07-24T11:02:21Z</time>
      </trkpt>
      <trkpt lat="42.41637" lon="0.10594">
        <ele>674.5</ele>
        <time>2016-07-24T11:02:22Z</time>
      </trkpt>
      <trkpt lat="42.41635" lon="0.106">
        <ele>673.8</ele>
        <time>2016-07-24T11:02:23Z</time>
      </trkpt>
      <trkpt lat="42.41633" lon="0.10607">
        <ele>673.1</ele>
        <time>2016-07-24T11:02:24Z</time>
      </trkpt>
      <trkpt lat="42.41631" lon="0.10614">
        <ele>672.3</ele>
        <time>2016-07-24T11:02:25Z</time>
      </trkpt>
      <trkpt lat="42.41629" lon="0.1062">
        <ele>671.7</ele>
        <time>2016-07-24T11:02:26Z</time>
      </trkpt>
      <trkpt lat="42.41628" lon="0.10625">
        <ele>671</ele>
        <time>2016-07-24T11:02:27Z</time>
      </trkpt>
      <trkpt lat="42.41627" lon="0.1063">
        <ele>670</ele>
        <time>2016-07-24T11:02:28Z</time>
      </trkpt>
      <trkpt lat="42.41627" lon="0.10635">
        <ele>668.9</ele>
        <time>2016-07-24T11:02:29Z</time>
      </trkpt>
      <trkpt lat="42.41627" lon="0.10639">
        <ele>668</ele>
        <time>2016-07-24T11:02:30Z</time>
      </trkpt>
      <trkpt lat="42.41626" lon="0.10643">
        <ele>667.1</ele>
        <time>2016-07-24T11:02:31Z</time>
      </trkpt>
      <trkpt lat="42.41626" lon="0.10648">
        <ele>666</ele>
        <time>2016-07-24T11:02:32Z</time>
      </trkpt>
      <trkpt lat="42.41625" lon="0.10652">
        <ele>665.1</ele>
        <time>2016-07-24T11:02:33Z</time>
      </trkpt>
      <trkpt lat="42.41624" lon="0.10657">
        <ele>664.6</ele>
        <time>2016-07-24T11:02:34Z</time>
      </trkpt>
      <trkpt lat="42.41621" lon="0.10661">
        <ele>664.5</ele>
        <time>2016-07-24T11:02:35Z</time>
      </trkpt>
      <trkpt lat="42.41619" lon="0.10665">
        <ele>664.3</ele>
        <time>2016-07-24T11:02:36Z</time>
      </trkpt>
      <trkpt lat="42.41617" lon="0.1067">
        <ele>663.8</ele>
        <time>2016-07-24T11:02:37Z</time>
      </trkpt>
      <trkpt lat="42.41615" lon="0.10676">
        <ele>662.9</ele>
        <time>2016-07-24T11:02:38Z</time>
      </trkpt>
      <trkpt lat="42.41614" lon="0.10681">
        <ele>661.9</ele>
        <time>2016-07-24T11:02:39Z</time>
      </trkpt>
      <trkpt lat="42.41613" lon="0.10686">
        <ele>661.1</ele>
        <time>2016-07-24T11:02:40Z</time>
      </trkpt>
      <trkpt lat="42.41612" lon="0.1069">
        <ele>660.3</ele>
        <time>2016-07-24T11:02:41Z</time>
      </trkpt>
      <trkpt lat="42.41611" lon="0.10695">
        <ele>659.1</ele>
        <time>2016-07-24T11:02:42Z</time>
      </trkpt>
      <trkpt lat="42.41611" lon="0.10701">
        <ele>657.7</ele>
        <time>2016-07-24T11:02:43Z</time>
      </trkpt>
      <trkpt lat="42.41611" lon="0.10706">
        <ele>656.5</ele>
        <time>2016-07-24T11:02:44Z</time>
      </trkpt>
      <trkpt lat="42.4161" lon="0.1071">
        <ele>655.7</ele>
        <time>2016-07-24T11:02:45Z</time>
      </trkpt>
      <trkpt lat="42.41607" lon="0.10714">
        <ele>655.2</ele>
        <time>2016-07-24T11:02:46Z</time>
      </trkpt>
      <trkpt lat="42.41604" lon="0.10719">
        <ele>654.7</ele>
        <time>2016-07-24T11:02:47Z</time>
      </trkpt>
      <trkpt lat="42.41602" lon="0.10725">
        <ele>653.9</ele>
        <time>2016-07-24T11:02:48Z</time>
      </trkpt>
      <trkpt lat="42.416" lon="0.10731">
        <ele>652.6</ele>
        <time>2016-07-24T11:02:49Z</time>
      </trkpt>
      <trkpt lat="42.41598" lon="0.10736">
        <ele>651.4</ele>
        <time>2016-07-24T11:02:50Z</time>
      </trkpt>
      <trkpt lat="42.41597" lon="0.10741">
        <ele>650.4</ele>
        <time>2016-07-24T11:02:51Z</time>
      </trkpt>
      <trkpt lat="42.41595" lon="0.10745">
        <ele>649.4</ele>
        <time>2016-07-24T11:02:52Z</time>
      </trkpt>
      <trkpt lat="42.41593" lon="0.1075">
        <ele>648.4</ele>
        <time>2016-07-24T11:02:53Z</time>
      </trkpt>
      <trkpt lat="42.4159" lon="0.10755">
        <ele>647.6</ele>
        <time>2016-07-24T11:02:54Z</time>
      </trkpt>
      <trkpt lat="42.41587" lon="0.1076">
        <ele>646.9</ele>
        <time>2016-07-24T11:02:55Z</time>
      </trkpt>
      <trkpt lat="42.41583" lon="0.10766">
        <ele>646</ele>
        <time>2016-07-24T11:02:56Z</time>
      </trkpt>
      <trkpt lat="42.41579" lon="0.10772">
        <ele>645</ele>
        <time>2016-07-24T11:02:57Z</time>
      </trkpt>
      <trkpt lat="42.41576" lon="0.10779">
        <ele>643.6</ele>
        <time>2016-07-24T11:02:58Z</time>
      </trkpt>
      <trkpt lat="42.41573" lon="0.10785">
        <ele>642.1</ele>
        <time>2016-07-24T11:02:59Z</time>
      </trkpt>
      <trkpt lat="42.4157" lon="0.10792">
        <ele>640.7</ele>
        <time>2016-07-24T11:03:00Z</time>
      </trkpt>
      <trkpt lat="42.41566" lon="0.10798">
        <ele>639.9</ele>
        <time>2016-07-24T11:03:01Z</time>
      </trkpt>
      <trkpt lat="42.41563" lon="0.10803">
        <ele>639.3</ele>
        <time>2016-07-24T11:03:02Z</time>
      </trkpt>
      <trkpt lat="42.41558" lon="0.10807">
        <ele>638.9</ele>
        <time>2016-07-24T11:03:03Z</time>
      </trkpt>
      <trkpt lat="42.41554" lon="0.10811">
        <ele>638.7</ele>
        <time>2016-07-24T11:03:04Z</time>
      </trkpt>
      <trkpt lat="42.4155" lon="0.10813">
        <ele>638.7</ele>
        <time>2016-07-24T11:03:05Z</time>
      </trkpt>
      <trkpt lat="42.41547" lon="0.10815">
        <ele>638.8</ele>
        <time>2016-07-24T11:03:06Z</time>
      </trkpt>
      <trkpt lat="42.41544" lon="0.10816">
        <ele>639.2</ele>
        <time>2016-07-24T11:03:07Z</time>
      </trkpt>
      <trkpt lat="42.41541" lon="0.10816">
        <ele>639.6</ele>
        <time>2016-07-24T11:03:08Z</time>
      </trkpt>
      <trkpt lat="42.41538" lon="0.10816">
        <ele>639.6</ele>
        <time>2016-07-24T11:03:09Z</time>
      </trkpt>
      <trkpt lat="42.41535" lon="0.10817">
        <ele>639.5</ele>
        <time>2016-07-24T11:03:10Z</time>
      </trkpt>
      <trkpt lat="42.41532" lon="0.10819">
        <ele>639.2</ele>
        <time>2016-07-24T11:03:11Z</time>
      </trkpt>
      <trkpt lat="42.4153" lon="0.10821">
        <ele>638.7</ele>
        <time>2016-07-24T11:03:12Z</time>
      </trkpt>
      <trkpt lat="42.41528" lon="0.10825">
        <ele>637.9</ele>
        <time>2016-07-24T11:03:13Z</time>
      </trkpt>
      <trkpt lat="42.41526" lon="0.10829">
        <ele>636.8</ele>
        <time>2016-07-24T11:03:14Z</time>
      </trkpt>
      <trkpt lat="42.41523" lon="0.10833">
        <ele>635.6</ele>
        <time>2016-07-24T11:03:15Z</time>
      </trkpt>
      <trkpt lat="42.4152" lon="0.10837">
        <ele>634.8</ele>
        <time>2016-07-24T11:03:16Z</time>
      </trkpt>
      <trkpt lat="42.41517" lon="0.1084">
        <ele>634.1</ele>
        <time>2016-07-24T11:03:17Z</time>
      </trkpt>
      <trkpt lat="42.41515" lon="0.10843">
        <ele>633.3</ele>
        <time>2016-07-24T11:03:18Z</time>
      </trkpt>
      <trkpt lat="42.41512" lon="0.10846">
        <ele>632.6</ele>
        <time>2016-07-24T11:03:19Z</time>
      </trkpt>
      <trkpt lat="42.4151" lon="0.10848">
        <ele>632</ele>
        <time>2016-07-24T11:03:20Z</time>
      </trkpt>
      <trkpt lat="42.41507" lon="0.1085">
        <ele>631.7</ele>
        <time>2016-07-24T11:03:21Z</time>
      </trkpt>
      <trkpt lat="42.41504" lon="0.1085">
        <ele>631.9</ele>
        <time>2016-07-24T11:03:22Z</time>
      </trkpt>
      <trkpt lat="42.415" lon="0.1085">
        <ele>632.4</ele>
        <time>2016-07-24T11:03:23Z</time>
      </trkpt>
      <trkpt lat="42.41497" lon="0.10848">
        <ele>633</ele>
        <time>2016-07-24T11:03:24Z</time>
      </trkpt>
      <trkpt lat="42.41495" lon="0.10847">
        <ele>633.6</ele>
        <time>2016-07-24T11:03:25Z</time>
      </trkpt>
      <trkpt lat="42.41492" lon="0.10847">
        <ele>634</ele>
        <time>2016-07-24T11:03:26Z</time>
      </trkpt>
      <trkpt lat="42.41489" lon="0.10847">
        <ele>634.3</ele>
        <time>2016-07-24T11:03:27Z</time>
      </trkpt>
      <trkpt lat="42.41486" lon="0.10847">
        <ele>634.6</ele>
        <time>2016-07-24T11:03:28Z</time>
      </trkpt>
      <trkpt lat="42.41483" lon="0.10847">
        <ele>634.7</ele>
        <time>2016-07-24T11:03:29Z</time>
      </trkpt>
      <trkpt lat="42.4148" lon="0.10847">
        <ele>634.8</ele>
        <time>2016-07-24T11:03:30Z</time>
      </trkpt>
      <trkpt lat="42.41477" lon="0.10848">
        <ele>635</ele>
        <time>2016-07-24T11:03:31Z</time>
      </trkpt>
      <trkpt lat="42.41473" lon="0.10848">
        <ele>635.3</ele>
        <time>2016-07-24T11:03:32Z</time>
      </trkpt>
      <trkpt lat="42.4147" lon="0.10847">
        <ele>635.6</ele>
        <time>2016-07-24T11:03:33Z</time>
      </trkpt>
      <trkpt lat="42.41466" lon="0.10847">
        <ele>636.1</ele>
        <time>2016-07-24T11:03:34Z</time>
      </trkpt>
      <trkpt lat="42.41463" lon="0.10847">
        <ele>636.5</ele>
        <time>2016-07-24T11:03:35Z</time>
      </trkpt>
      <trkpt lat="42.4146" lon="0.10846">
        <ele>636.9</ele>
        <time>2016-07-24T11:03:36Z</time>
      </trkpt>
      <trkpt lat="42.41456" lon="0.10846">
        <ele>636.7</ele>
        <time>2016-07-24T11:03:37Z</time>
      </trkpt>
      <trkpt lat="42.41453" lon="0.10846">
        <ele>636.2</ele>
        <time>2016-07-24T11:03:38Z</time>
      </trkpt>
      <trkpt lat="42.41449" lon="0.10846">
        <ele>635.8</ele>
        <time>2016-07-24T11:03:39Z</time>
      </trkpt>
      <trkpt lat="42.41446" lon="0.10845">
        <ele>635.3</ele>
        <time>2016-07-24T11:03:40Z</time>
      </trkpt>
      <trkpt lat="42.41442" lon="0.10845">
        <ele>634.9</ele>
        <time>2016-07-24T11:03:41Z</time>
      </trkpt>
      <trkpt lat="42.41439" lon="0.10844">
        <ele>634.6</ele>
        <time>2016-07-24T11:03:42Z</time>
      </trkpt>
      <trkpt lat="42.41436" lon="0.10844">
        <ele>634.3</ele>
        <time>2016-07-24T11:03:43Z</time>
      </trkpt>
      <trkpt lat="42.41433" lon="0.10843">
        <ele>634</ele>
        <time>2016-07-24T11:03:44Z</time>
      </trkpt>
      <trkpt lat="42.41429" lon="0.10842">
        <ele>633.7</ele>
        <time>2016-07-24T11:03:45Z</time>
      </trkpt>
      <trkpt lat="42.41426" lon="0.10841">
        <ele>633.4</ele>
        <time>2016-07-24T11:03:46Z</time>
      </trkpt>
      <trkpt lat="42.41422" lon="0.1084">
        <ele>633.2</ele>
        <time>2016-07-24T11:03:47Z</time>
      </trkpt>
      <trkpt lat="42.41419" lon="0.10839">
        <ele>633</ele>
        <time>2016-07-24T11:03:48Z</time>
      </trkpt>
      <trkpt lat="42.41417" lon="0.10838">
        <ele>633</ele>
        <time>2016-07-24T11:03:49Z</time>
      </trkpt>
      <trkpt lat="42.41412" lon="0.10836">
        <ele>632.9</ele>
        <time>2016-07-24T11:03:51Z</time>
      </trkpt>
      <trkpt lat="42.41408" lon="0.10834">
        <ele>633</ele>
        <time>2016-07-24T11:03:53Z</time>
      </trkpt>
      <trkpt lat="42.41404" lon="0.10831">
        <ele>633.1</ele>
        <time>2016-07-24T11:03:55Z</time>
      </trkpt>
      <trkpt lat="42.414" lon="0.10829">
        <ele>633.1</ele>
        <time>2016-07-24T11:03:57Z</time>
      </trkpt>
      <trkpt lat="42.41396" lon="0.10827">
        <ele>633.2</ele>
        <time>2016-07-24T11:03:59Z</time>
      </trkpt>
      <trkpt lat="42.41392" lon="0.10825">
        <ele>633.4</ele>
        <time>2016-07-24T11:04:01Z</time>
      </trkpt>
      <trkpt lat="42.41389" lon="0.10823">
        <ele>633.5</ele>
        <time>2016-07-24T11:04:03Z</time>
      </trkpt>
      <trkpt lat="42.41385" lon="0.10821">
        <ele>633.6</ele>
        <time>2016-07-24T11:04:05Z</time>
      </trkpt>
      <trkpt lat="42.41382" lon="0.10818">
        <ele>633.8</ele>
        <time>2016-07-24T11:04:07Z</time>
      </trkpt>
      <trkpt lat="42.41378" lon="0.10815">
        <ele>634.1</ele>
        <time>2016-07-24T11:04:09Z</time>
      </trkpt>
      <trkpt lat="42.41375" lon="0.10812">
        <ele>634.7</ele>
        <time>2016-07-24T11:04:11Z</time>
      </trkpt>
      <trkpt lat="42.41372" lon="0.10808">
        <ele>635.4</ele>
        <time>2016-07-24T11:04:13Z</time>
      </trkpt>
      <trkpt lat="42.4137" lon="0.10805">
        <ele>636.1</ele>
        <time>2016-07-24T11:04:15Z</time>
      </trkpt>
      <trkpt lat="42.41366" lon="0.10802">
        <ele>636.7</ele>
        <time>2016-07-24T11:04:17Z</time>
      </trkpt>
      <trkpt lat="42.41363" lon="0.10798">
        <ele>637.4</ele>
        <time>2016-07-24T11:04:19Z</time>
      </trkpt>
      <trkpt lat="42.41361" lon="0.10794">
        <ele>638.2</ele>
        <time>2016-07-24T11:04:21Z</time>
      </trkpt>
      <trkpt lat="42.41358" lon="0.10791">
        <ele>639</ele>
        <time>2016-07-24T11:04:23Z</time>
      </trkpt>
      <trkpt lat="42.41355" lon="0.10788">
        <ele>640.1</ele>
        <time>2016-07-24T11:04:25Z</time>
      </trkpt>
      <trkpt lat="42.41353" lon="0.10785">
        <ele>641.2</ele>
        <time>2016-07-24T11:04:27Z</time>
      </trkpt>
      <trkpt lat="42.4135" lon="0.10781">
        <ele>642.4</ele>
        <time>2016-07-24T11:04:29Z</time>
      </trkpt>
      <trkpt lat="42.41347" lon="0.10778">
        <ele>643.4</ele>
        <time>2016-07-24T11:04:31Z</time>
      </trkpt>
      <trkpt lat="42.41344" lon="0.10775">
        <ele>644.5</ele>
        <time>2016-07-24T11:04:33Z</time>
      </trkpt>
      <trkpt lat="42.41341" lon="0.10771">
        <ele>645.6</ele>
        <time>2016-07-24T11:04:35Z</time>
      </trkpt>
      <trkpt lat="42.41339" lon="0.10767">
        <ele>646.8</ele>
        <time>2016-07-24T11:04:37Z</time>
      </trkpt>
      <trkpt lat="42.41336" lon="0.10763">
        <ele>648.2</ele>
        <time>2016-07-24T11:04:39Z</time>
      </trkpt>
      <trkpt lat="42.41333" lon="0.10759">
        <ele>649.5</ele>
        <time>2016-07-24T11:04:41Z</time>
      </trkpt>
      <trkpt lat="42.4133" lon="0.10755">
        <ele>650.7</ele>
        <time>2016-07-24T11:04:43Z</time>
      </trkpt>
      <trkpt lat="42.41327" lon="0.10752">
        <ele>651.7</ele>
        <time>2016-07-24T11:04:45Z</time>
      </trkpt>
      <trkpt lat="42.41323" lon="0.10748">
        <ele>652.7</ele>
        <time>2016-07-24T11:04:47Z</time>
      </trkpt>
      <trkpt lat="42.4132" lon="0.10745">
        <ele>653.5</ele>
        <time>2016-07-24T11:04:49Z</time>
      </trkpt>
      <trkpt lat="42.41317" lon="0.10742">
        <ele>654.5</ele>
        <time>2016-07-24T11:04:51Z</time>
      </trkpt>
      <trkpt lat="42.41314" lon="0.10738">
        <ele>655.3</ele>
        <time>2016-07-24T11:04:53Z</time>
      </trkpt>
      <trkpt lat="42.4131" lon="0.10735">
        <ele>656.2</ele>
        <time>2016-07-24T11:04:55Z</time>
      </trkpt>
      <trkpt lat="42.41307" lon="0.10731">
        <ele>657.2</ele>
        <time>2016-07-24T11:04:57Z</time>
      </trkpt>
      <trkpt lat="42.41304" lon="0.10728">
        <ele>658</ele>
        <time>2016-07-24T11:04:59Z</time>
      </trkpt>
      <trkpt lat="42.41301" lon="0.10726">
        <ele>658.4</ele>
        <time>2016-07-24T11:05:01Z</time>
      </trkpt>
      <trkpt lat="42.41298" lon="0.10724">
        <ele>658.7</ele>
        <time>2016-07-24T11:05:03Z</time>
      </trkpt>
      <trkpt lat="42.41294" lon="0.10722">
        <ele>659</ele>
        <time>2016-07-24T11:05:05Z</time>
      </trkpt>
      <trkpt lat="42.41291" lon="0.10719">
        <ele>659.3</ele>
        <time>2016-07-24T11:05:07Z</time>
      </trkpt>
      <trkpt lat="42.41288" lon="0.10717">
        <ele>659.5</ele>
        <time>2016-07-24T11:05:09Z</time>
      </trkpt>
      <trkpt lat="42.41285" lon="0.10716">
        <ele>659.4</ele>
        <time>2016-07-24T11:05:11Z</time>
      </trkpt>
      <trkpt lat="42.41282" lon="0.10716">
        <ele>658.6</ele>
        <time>2016-07-24T11:05:14Z</time>
      </trkpt>
      <trkpt lat="42.4128" lon="0.10719">
        <ele>657.1</ele>
        <time>2016-07-24T11:05:17Z</time>
      </trkpt>
      <trkpt lat="42.41278" lon="0.10722">
        <ele>655.5</ele>
        <time>2016-07-24T11:05:19Z</time>
      </trkpt>
      <trkpt lat="42.41275" lon="0.10725">
        <ele>653.8</ele>
        <time>2016-07-24T11:05:21Z</time>
      </trkpt>
      <trkpt lat="42.41271" lon="0.10725">
        <ele>652.7</ele>
        <time>2016-07-24T11:05:23Z</time>
      </trkpt>
      <trkpt lat="42.41266" lon="0.10724">
        <ele>652.1</ele>
        <time>2016-07-24T11:05:25Z</time>
      </trkpt>
      <trkpt lat="42.41263" lon="0.10724">
        <ele>651.6</ele>
        <time>2016-07-24T11:05:26Z</time>
      </trkpt>
      <trkpt lat="42.4126" lon="0.10723">
        <ele>651</ele>
        <time>2016-07-24T11:05:27Z</time>
      </trkpt>
      <trkpt lat="42.41257" lon="0.10723">
        <ele>650.7</ele>
        <time>2016-07-24T11:05:28Z</time>
      </trkpt>
      <trkpt lat="42.41251" lon="0.10721">
        <ele>649.9</ele>
        <time>2016-07-24T11:05:30Z</time>
      </trkpt>
      <trkpt lat="42.41247" lon="0.10721">
        <ele>649</ele>
        <time>2016-07-24T11:05:31Z</time>
      </trkpt>
      <trkpt lat="42.41244" lon="0.10722">
        <ele>648.1</ele>
        <time>2016-07-24T11:05:32Z</time>
      </trkpt>
      <trkpt lat="42.4124" lon="0.10723">
        <ele>647</ele>
        <time>2016-07-24T11:05:33Z</time>
      </trkpt>
      <trkpt lat="42.41236" lon="0.10723">
        <ele>645.9</ele>
        <time>2016-07-24T11:05:34Z</time>
      </trkpt>
      <trkpt lat="42.41232" lon="0.10723">
        <ele>645</ele>
        <time>2016-07-24T11:05:35Z</time>
      </trkpt>
      <trkpt lat="42.41227" lon="0.10723">
        <ele>644.2</ele>
        <time>2016-07-24T11:05:36Z</time>
      </trkpt>
      <trkpt lat="42.41222" lon="0.10722">
        <ele>643.3</ele>
        <time>2016-07-24T11:05:37Z</time>
      </trkpt>
      <trkpt lat="42.41217" lon="0.10722">
        <ele>642.1</ele>
        <time>2016-07-24T11:05:38Z</time>
      </trkpt>
      <trkpt lat="42.41213" lon="0.10723">
        <ele>640.9</ele>
        <time>2016-07-24T11:05:39Z</time>
      </trkpt>
      <trkpt lat="42.41208" lon="0.10724">
        <ele>639.7</ele>
        <time>2016-07-24T11:05:41Z</time>
      </trkpt>
      <trkpt lat="42.41206" lon="0.10723">
        <ele>639.9</ele>
        <time>2016-07-24T11:05:42Z</time>
      </trkpt>
      <trkpt lat="42.41202" lon="0.10722">
        <ele>640.6</ele>
        <time>2016-07-24T11:05:43Z</time>
      </trkpt>
      <trkpt lat="42.41199" lon="0.1072">
        <ele>641.3</ele>
        <time>2016-07-24T11:05:44Z</time>
      </trkpt>
      <trkpt lat="42.41195" lon="0.10718">
        <ele>642</ele>
        <time>2016-07-24T11:05:45Z</time>
      </trkpt>
      <trkpt lat="42.41191" lon="0.10716">
        <ele>642.9</ele>
        <time>2016-07-24T11:05:46Z</time>
      </trkpt>
      <trkpt lat="42.41187" lon="0.10714">
        <ele>643.9</ele>
        <time>2016-07-24T11:05:47Z</time>
      </trkpt>
      <trkpt lat="42.41184" lon="0.10712">
        <ele>645</ele>
        <time>2016-07-24T11:05:48Z</time>
      </trkpt>
      <trkpt lat="42.41181" lon="0.10709">
        <ele>646</ele>
        <time>2016-07-24T11:05:49Z</time>
      </trkpt>
      <trkpt lat="42.41178" lon="0.10707">
        <ele>646.7</ele>
        <time>2016-07-24T11:05:50Z</time>
      </trkpt>
      <trkpt lat="42.41175" lon="0.10704">
        <ele>647.2</ele>
        <time>2016-07-24T11:05:51Z</time>
      </trkpt>
      <trkpt lat="42.41171" lon="0.107">
        <ele>647.8</ele>
        <time>2016-07-24T11:05:52Z</time>
      </trkpt>
      <trkpt lat="42.41167" lon="0.10696">
        <ele>648.4</ele>
        <time>2016-07-24T11:05:53Z</time>
      </trkpt>
      <trkpt lat="42.41164" lon="0.10693">
        <ele>648.9</ele>
        <time>2016-07-24T11:05:54Z</time>
      </trkpt>
      <trkpt lat="42.41161" lon="0.1069">
        <ele>649.3</ele>
        <time>2016-07-24T11:05:55Z</time>
      </trkpt>
      <trkpt lat="42.41159" lon="0.10687">
        <ele>649.6</ele>
        <time>2016-07-24T11:05:57Z</time>
      </trkpt>
      <trkpt lat="42.41157" lon="0.10687">
        <ele>649.7</ele>
        <time>2016-07-24T11:06:12Z</time>
      </trkpt>
      <trkpt lat="42.41153" lon="0.10685">
        <ele>650</ele>
        <time>2016-07-24T11:06:20Z</time>
      </trkpt>
      <trkpt lat="42.4115" lon="0.10685">
        <ele>650</ele>
        <time>2016-07-24T11:06:22Z</time>
      </trkpt>
      <trkpt lat="42.41147" lon="0.10688">
        <ele>649.8</ele>
        <time>2016-07-24T11:06:24Z</time>
      </trkpt>
      <trkpt lat="42.41146" lon="0.10693">
        <ele>649.5</ele>
        <time>2016-07-24T11:06:26Z</time>
      </trkpt>
      <trkpt lat="42.41143" lon="0.10699">
        <ele>649</ele>
        <time>2016-07-24T11:06:28Z</time>
      </trkpt>
      <trkpt lat="42.41141" lon="0.10704">
        <ele>648.6</ele>
        <time>2016-07-24T11:06:30Z</time>
      </trkpt>
      <trkpt lat="42.41138" lon="0.10707">
        <ele>648.5</ele>
        <time>2016-07-24T11:06:31Z</time>
      </trkpt>
      <trkpt lat="42.41136" lon="0.10709">
        <ele>648.1</ele>
        <time>2016-07-24T11:06:32Z</time>
      </trkpt>
      <trkpt lat="42.41133" lon="0.10712">
        <ele>646.9</ele>
        <time>2016-07-24T11:06:33Z</time>
      </trkpt>
      <trkpt lat="42.41131" lon="0.10716">
        <ele>645.2</ele>
        <time>2016-07-24T11:06:34Z</time>
      </trkpt>
      <trkpt lat="42.4113" lon="0.10721">
        <ele>643.1</ele>
        <time>2016-07-24T11:06:35Z</time>
      </trkpt>
      <trkpt lat="42.41129" lon="0.10726">
        <ele>641.1</ele>
        <time>2016-07-24T11:06:36Z</time>
      </trkpt>
      <trkpt lat="42.41129" lon="0.1073">
        <ele>639.3</ele>
        <time>2016-07-24T11:06:37Z</time>
      </trkpt>
      <trkpt lat="42.41127" lon="0.10734">
        <ele>637.7</ele>
        <time>2016-07-24T11:06:38Z</time>
      </trkpt>
      <trkpt lat="42.41124" lon="0.10737">
        <ele>636</ele>
        <time>2016-07-24T11:06:39Z</time>
      </trkpt>
      <trkpt lat="42.41122" lon="0.10741">
        <ele>633.6</ele>
        <time>2016-07-24T11:06:40Z</time>
      </trkpt>
      <trkpt lat="42.41119" lon="0.10744">
        <ele>631.6</ele>
        <time>2016-07-24T11:06:41Z</time>
      </trkpt>
      <trkpt lat="42.41116" lon="0.10749">
        <ele>628.1</ele>
        <time>2016-07-24T11:06:43Z</time>
      </trkpt>
      <trkpt lat="42.41113" lon="0.10753">
        <ele>625.3</ele>
        <time>2016-07-24T11:06:45Z</time>
      </trkpt>
      <trkpt lat="42.41108" lon="0.10755">
        <ele>623.1</ele>
        <time>2016-07-24T11:06:47Z</time>
      </trkpt>
      <trkpt lat="42.41105" lon="0.10756">
        <ele>621.9</ele>
        <time>2016-07-24T11:06:48Z</time>
      </trkpt>
      <trkpt lat="42.41101" lon="0.10757">
        <ele>620.7</ele>
        <time>2016-07-24T11:06:49Z</time>
      </trkpt>
      <trkpt lat="42.41099" lon="0.10757">
        <ele>619.5</ele>
        <time>2016-07-24T11:06:50Z</time>
      </trkpt>
      <trkpt lat="42.41093" lon="0.10759">
        <ele>617.4</ele>
        <time>2016-07-24T11:06:52Z</time>
      </trkpt>
      <trkpt lat="42.41089" lon="0.10759">
        <ele>616.4</ele>
        <time>2016-07-24T11:06:53Z</time>
      </trkpt>
      <trkpt lat="42.41086" lon="0.10758">
        <ele>615.7</ele>
        <time>2016-07-24T11:06:54Z</time>
      </trkpt>
      <trkpt lat="42.41083" lon="0.10758">
        <ele>615</ele>
        <time>2016-07-24T11:06:55Z</time>
      </trkpt>
      <trkpt lat="42.41079" lon="0.10759">
        <ele>613</ele>
        <time>2016-07-24T11:06:57Z</time>
      </trkpt>
      <trkpt lat="42.41074" lon="0.10762">
        <ele>610.5</ele>
        <time>2016-07-24T11:06:59Z</time>
      </trkpt>
      <trkpt lat="42.41071" lon="0.10763">
        <ele>609.2</ele>
        <time>2016-07-24T11:07:00Z</time>
      </trkpt>
      <trkpt lat="42.41068" lon="0.10764">
        <ele>608.2</ele>
        <time>2016-07-24T11:07:01Z</time>
      </trkpt>
      <trkpt lat="42.41065" lon="0.10764">
        <ele>607.3</ele>
        <time>2016-07-24T11:07:02Z</time>
      </trkpt>
      <trkpt lat="42.41062" lon="0.10764">
        <ele>606.4</ele>
        <time>2016-07-24T11:07:03Z</time>
      </trkpt>
      <trkpt lat="42.41059" lon="0.10765">
        <ele>605.4</ele>
        <time>2016-07-24T11:07:04Z</time>
      </trkpt>
      <trkpt lat="42.41056" lon="0.10764">
        <ele>604.5</ele>
        <time>2016-07-24T11:07:05Z</time>
      </trkpt>
      <trkpt lat="42.41053" lon="0.10764">
        <ele>603.9</ele>
        <time>2016-07-24T11:07:06Z</time>
      </trkpt>
      <trkpt lat="42.4105" lon="0.10762">
        <ele>603.6</ele>
        <time>2016-07-24T11:07:07Z</time>
      </trkpt>
      <trkpt lat="42.41047" lon="0.10761">
        <ele>603.3</ele>
        <time>2016-07-24T11:07:08Z</time>
      </trkpt>
      <trkpt lat="42.41043" lon="0.10758">
        <ele>603.3</ele>
        <time>2016-07-24T11:07:10Z</time>
      </trkpt>
      <trkpt lat="42.41039" lon="0.10756">
        <ele>602.8</ele>
        <time>2016-07-24T11:07:12Z</time>
      </trkpt>
      <trkpt lat="42.41036" lon="0.10755">
        <ele>601.8</ele>
        <time>2016-07-24T11:07:13Z</time>
      </trkpt>
      <trkpt lat="42.41033" lon="0.10755">
        <ele>600.7</ele>
        <time>2016-07-24T11:07:14Z</time>
      </trkpt>
      <trkpt lat="42.41029" lon="0.10755">
        <ele>599.4</ele>
        <time>2016-07-24T11:07:15Z</time>
      </trkpt>
      <trkpt lat="42.41025" lon="0.10755">
        <ele>598</ele>
        <time>2016-07-24T11:07:16Z</time>
      </trkpt>
      <trkpt lat="42.41021" lon="0.10755">
        <ele>596.8</ele>
        <time>2016-07-24T11:07:17Z</time>
      </trkpt>
      <trkpt lat="42.41018" lon="0.10755">
        <ele>595.9</ele>
        <time>2016-07-24T11:07:18Z</time>
      </trkpt>
      <trkpt lat="42.41015" lon="0.10753">
        <ele>595.1</ele>
        <time>2016-07-24T11:07:20Z</time>
      </trkpt>
      <trkpt lat="42.41015" lon="0.10758">
        <ele>594</ele>
        <time>2016-07-24T11:07:26Z</time>
      </trkpt>
      <trkpt lat="42.41017" lon="0.10764">
        <ele>593.1</ele>
        <time>2016-07-24T11:07:28Z</time>
      </trkpt>
      <trkpt lat="42.41016" lon="0.10767">
        <ele>591.9</ele>
        <time>2016-07-24T11:07:30Z</time>
      </trkpt>
      <trkpt lat="42.41012" lon="0.10767">
        <ele>590.7</ele>
        <time>2016-07-24T11:07:32Z</time>
      </trkpt>
      <trkpt lat="42.41009" lon="0.10766">
        <ele>590</ele>
        <time>2016-07-24T11:07:33Z</time>
      </trkpt>
      <trkpt lat="42.41005" lon="0.10765">
        <ele>589.2</ele>
        <time>2016-07-24T11:07:34Z</time>
      </trkpt>
      <trkpt lat="42.41002" lon="0.10764">
        <ele>588.2</ele>
        <time>2016-07-24T11:07:35Z</time>
      </trkpt>
      <trkpt lat="42.40998" lon="0.10763">
        <ele>587.3</ele>
        <time>2016-07-24T11:07:36Z</time>
      </trkpt>
      <trkpt lat="42.40994" lon="0.10761">
        <ele>586.3</ele>
        <time>2016-07-24T11:07:37Z</time>
      </trkpt>
      <trkpt lat="42.4099" lon="0.10759">
        <ele>585.3</ele>
        <time>2016-07-24T11:07:38Z</time>
      </trkpt>
      <trkpt lat="42.40986" lon="0.10758">
        <ele>584.4</ele>
        <time>2016-07-24T11:07:39Z</time>
      </trkpt>
      <trkpt lat="42.40983" lon="0.10756">
        <ele>583.6</ele>
        <time>2016-07-24T11:07:40Z</time>
      </trkpt>
      <trkpt lat="42.40981" lon="0.10754">
        <ele>582.9</ele>
        <time>2016-07-24T11:07:41Z</time>
      </trkpt>
      <trkpt lat="42.40976" lon="0.10753">
        <ele>581.6</ele>
        <time>2016-07-24T11:07:43Z</time>
      </trkpt>
      <trkpt lat="42.40976" lon="0.10757">
        <ele>581</ele>
        <time>2016-07-24T11:07:45Z</time>
      </trkpt>
      <trkpt lat="42.40978" lon="0.10762">
        <ele>581.1</ele>
        <time>2016-07-24T11:07:46Z</time>
      </trkpt>
      <trkpt lat="42.40981" lon="0.10768">
        <ele>581.2</ele>
        <time>2016-07-24T11:07:47Z</time>
      </trkpt>
      <trkpt lat="42.40984" lon="0.10773">
        <ele>581.2</ele>
        <time>2016-07-24T11:07:48Z</time>
      </trkpt>
      <trkpt lat="42.40986" lon="0.10779">
        <ele>580.9</ele>
        <time>2016-07-24T11:07:49Z</time>
      </trkpt>
      <trkpt lat="42.40988" lon="0.10786">
        <ele>580.5</ele>
        <time>2016-07-24T11:07:50Z</time>
      </trkpt>
      <trkpt lat="42.40991" lon="0.10793">
        <ele>579.9</ele>
        <time>2016-07-24T11:07:51Z</time>
      </trkpt>
      <trkpt lat="42.40993" lon="0.108">
        <ele>579.8</ele>
        <time>2016-07-24T11:07:52Z</time>
      </trkpt>
      <trkpt lat="42.40996" lon="0.10807">
        <ele>579.7</ele>
        <time>2016-07-24T11:07:53Z</time>
      </trkpt>
      <trkpt lat="42.40999" lon="0.10814">
        <ele>579.6</ele>
        <time>2016-07-24T11:07:54Z</time>
      </trkpt>
      <trkpt lat="42.41002" lon="0.1082">
        <ele>579.3</ele>
        <time>2016-07-24T11:07:55Z</time>
      </trkpt>
      <trkpt lat="42.41004" lon="0.10827">
        <ele>578.8</ele>
        <time>2016-07-24T11:07:56Z</time>
      </trkpt>
      <trkpt lat="42.41006" lon="0.10833">
        <ele>578.2</ele>
        <time>2016-07-24T11:07:57Z</time>
      </trkpt>
      <trkpt lat="42.41008" lon="0.1084">
        <ele>577.6</ele>
        <time>2016-07-24T11:07:58Z</time>
      </trkpt>
      <trkpt lat="42.4101" lon="0.10846">
        <ele>576.9</ele>
        <time>2016-07-24T11:07:59Z</time>
      </trkpt>
      <trkpt lat="42.41013" lon="0.10851">
        <ele>576.2</ele>
        <time>2016-07-24T11:08:00Z</time>
      </trkpt>
      <trkpt lat="42.41016" lon="0.10855">
        <ele>575.7</ele>
        <time>2016-07-24T11:08:01Z</time>
      </trkpt>
      <trkpt lat="42.4102" lon="0.10858">
        <ele>575.1</ele>
        <time>2016-07-24T11:08:02Z</time>
      </trkpt>
      <trkpt lat="42.41024" lon="0.10862">
        <ele>574.4</ele>
        <time>2016-07-24T11:08:03Z</time>
      </trkpt>
      <trkpt lat="42.41027" lon="0.10867">
        <ele>573.4</ele>
        <time>2016-07-24T11:08:04Z</time>
      </trkpt>
      <trkpt lat="42.4103" lon="0.10873">
        <ele>572.1</ele>
        <time>2016-07-24T11:08:05Z</time>
      </trkpt>
      <trkpt lat="42.41032" lon="0.10879">
        <ele>571.5</ele>
        <time>2016-07-24T11:08:06Z</time>
      </trkpt>
      <trkpt lat="42.41033" lon="0.10885">
        <ele>571.2</ele>
        <time>2016-07-24T11:08:07Z</time>
      </trkpt>
      <trkpt lat="42.41035" lon="0.10891">
        <ele>570.9</ele>
        <time>2016-07-24T11:08:08Z</time>
      </trkpt>
      <trkpt lat="42.41038" lon="0.10897">
        <ele>570.4</ele>
        <time>2016-07-24T11:08:09Z</time>
      </trkpt>
      <trkpt lat="42.41041" lon="0.10902">
        <ele>569.8</ele>
        <time>2016-07-24T11:08:10Z</time>
      </trkpt>
      <trkpt lat="42.41045" lon="0.10905">
        <ele>569.6</ele>
        <time>2016-07-24T11:08:11Z</time>
      </trkpt>
      <trkpt lat="42.4105" lon="0.10907">
        <ele>569.6</ele>
        <time>2016-07-24T11:08:12Z</time>
      </trkpt>
      <trkpt lat="42.41056" lon="0.10907">
        <ele>569.6</ele>
        <time>2016-07-24T11:08:13Z</time>
      </trkpt>
      <trkpt lat="42.41061" lon="0.10907">
        <ele>569.7</ele>
        <time>2016-07-24T11:08:14Z</time>
      </trkpt>
      <trkpt lat="42.41067" lon="0.10907">
        <ele>569.8</ele>
        <time>2016-07-24T11:08:15Z</time>
      </trkpt>
      <trkpt lat="42.41074" lon="0.10907">
        <ele>569.9</ele>
        <time>2016-07-24T11:08:16Z</time>
      </trkpt>
      <trkpt lat="42.41079" lon="0.10906">
        <ele>570.1</ele>
        <time>2016-07-24T11:08:17Z</time>
      </trkpt>
      <trkpt lat="42.41085" lon="0.10906">
        <ele>570.2</ele>
        <time>2016-07-24T11:08:18Z</time>
      </trkpt>
      <trkpt lat="42.41091" lon="0.10904">
        <ele>570.5</ele>
        <time>2016-07-24T11:08:19Z</time>
      </trkpt>
      <trkpt lat="42.41096" lon="0.10903">
        <ele>570.7</ele>
        <time>2016-07-24T11:08:20Z</time>
      </trkpt>
      <trkpt lat="42.41101" lon="0.109">
        <ele>571.2</ele>
        <time>2016-07-24T11:08:21Z</time>
      </trkpt>
      <trkpt lat="42.41105" lon="0.10896">
        <ele>571.9</ele>
        <time>2016-07-24T11:08:22Z</time>
      </trkpt>
      <trkpt lat="42.4111" lon="0.10892">
        <ele>572.7</ele>
        <time>2016-07-24T11:08:23Z</time>
      </trkpt>
      <trkpt lat="42.41116" lon="0.10888">
        <ele>573.4</ele>
        <time>2016-07-24T11:08:24Z</time>
      </trkpt>
      <trkpt lat="42.41121" lon="0.10885">
        <ele>574.2</ele>
        <time>2016-07-24T11:08:25Z</time>
      </trkpt>
      <trkpt lat="42.41127" lon="0.10882">
        <ele>574.9</ele>
        <time>2016-07-24T11:08:26Z</time>
      </trkpt>
      <trkpt lat="42.41132" lon="0.10881">
        <ele>575.4</ele>
        <time>2016-07-24T11:08:27Z</time>
      </trkpt>
      <trkpt lat="42.41138" lon="0.1088">
        <ele>575.9</ele>
        <time>2016-07-24T11:08:28Z</time>
      </trkpt>
      <trkpt lat="42.41143" lon="0.10879">
        <ele>576.3</ele>
        <time>2016-07-24T11:08:29Z</time>
      </trkpt>
      <trkpt lat="42.41148" lon="0.10878">
        <ele>576.8</ele>
        <time>2016-07-24T11:08:30Z</time>
      </trkpt>
      <trkpt lat="42.41153" lon="0.10876">
        <ele>577.4</ele>
        <time>2016-07-24T11:08:31Z</time>
      </trkpt>
      <trkpt lat="42.41158" lon="0.10874">
        <ele>578.4</ele>
        <time>2016-07-24T11:08:32Z</time>
      </trkpt>
      <trkpt lat="42.41161" lon="0.10871">
        <ele>579.8</ele>
        <time>2016-07-24T11:08:33Z</time>
      </trkpt>
      <trkpt lat="42.41163" lon="0.10869">
        <ele>581.1</ele>
        <time>2016-07-24T11:08:34Z</time>
      </trkpt>
      <trkpt lat="42.41165" lon="0.10865">
        <ele>582.8</ele>
        <time>2016-07-24T11:08:36Z</time>
      </trkpt>
      <trkpt lat="42.41169" lon="0.10863">
        <ele>583.7</ele>
        <time>2016-07-24T11:08:41Z</time>
      </trkpt>
      <trkpt lat="42.41173" lon="0.10864">
        <ele>583.8</ele>
        <time>2016-07-24T11:08:44Z</time>
      </trkpt>
      <trkpt lat="42.41175" lon="0.10867">
        <ele>582.6</ele>
        <time>2016-07-24T11:08:46Z</time>
      </trkpt>
      <trkpt lat="42.41178" lon="0.1087">
        <ele>581.2</ele>
        <time>2016-07-24T11:08:48Z</time>
      </trkpt>
      <trkpt lat="42.4118" lon="0.10874">
        <ele>579.9</ele>
        <time>2016-07-24T11:08:51Z</time>
      </trkpt>
      <trkpt lat="42.41182" lon="0.10877">
        <ele>579.1</ele>
        <time>2016-07-24T11:08:53Z</time>
      </trkpt>
      <trkpt lat="42.41185" lon="0.10881">
        <ele>578.5</ele>
        <time>2016-07-24T11:08:55Z</time>
      </trkpt>
      <trkpt lat="42.4119" lon="0.10885">
        <ele>577.9</ele>
        <time>2016-07-24T11:08:57Z</time>
      </trkpt>
      <trkpt lat="42.41194" lon="0.10887">
        <ele>577.7</ele>
        <time>2016-07-24T11:08:58Z</time>
      </trkpt>
      <trkpt lat="42.41198" lon="0.10889">
        <ele>577.6</ele>
        <time>2016-07-24T11:08:59Z</time>
      </trkpt>
      <trkpt lat="42.41202" lon="0.10891">
        <ele>577.3</ele>
        <time>2016-07-24T11:09:00Z</time>
      </trkpt>
      <trkpt lat="42.41206" lon="0.10894">
        <ele>577</ele>
        <time>2016-07-24T11:09:01Z</time>
      </trkpt>
      <trkpt lat="42.41209" lon="0.10897">
        <ele>576.7</ele>
        <time>2016-07-24T11:09:02Z</time>
      </trkpt>
      <trkpt lat="42.41213" lon="0.10898">
        <ele>576.9</ele>
        <time>2016-07-24T11:09:03Z</time>
      </trkpt>
      <trkpt lat="42.41217" lon="0.109">
        <ele>577</ele>
        <time>2016-07-24T11:09:04Z</time>
      </trkpt>
      <trkpt lat="42.4122" lon="0.10902">
        <ele>577.2</ele>
        <time>2016-07-24T11:09:05Z</time>
      </trkpt>
      <trkpt lat="42.41224" lon="0.10903">
        <ele>577.2</ele>
        <time>2016-07-24T11:09:06Z</time>
      </trkpt>
      <trkpt lat="42.41226" lon="0.10905">
        <ele>577.2</ele>
        <time>2016-07-24T11:09:07Z</time>
      </trkpt>
      <trkpt lat="42.41229" lon="0.10906">
        <ele>577.2</ele>
        <time>2016-07-24T11:09:09Z</time>
      </trkpt>
      <trkpt lat="42.41234" lon="0.1091">
        <ele>576.8</ele>
        <time>2016-07-24T11:09:11Z</time>
      </trkpt>
      <trkpt lat="42.41236" lon="0.10913">
        <ele>576.5</ele>
        <time>2016-07-24T11:09:12Z</time>
      </trkpt>
      <trkpt lat="42.4124" lon="0.10914">
        <ele>576.5</ele>
        <time>2016-07-24T11:09:13Z</time>
      </trkpt>
      <trkpt lat="42.41243" lon="0.10915">
        <ele>576.6</ele>
        <time>2016-07-24T11:09:14Z</time>
      </trkpt>
      <trkpt lat="42.41248" lon="0.10914">
        <ele>577.5</ele>
        <time>2016-07-24T11:09:16Z</time>
      </trkpt>
      <trkpt lat="42.41251" lon="0.10914">
        <ele>577.9</ele>
        <time>2016-07-24T11:09:17Z</time>
      </trkpt>
      <trkpt lat="42.41254" lon="0.10915">
        <ele>578</ele>
        <time>2016-07-24T11:09:18Z</time>
      </trkpt>
      <trkpt lat="42.41257" lon="0.10916">
        <ele>577.9</ele>
        <time>2016-07-24T11:09:19Z</time>
      </trkpt>
      <trkpt lat="42.41262" lon="0.10919">
        <ele>577.7</ele>
        <time>2016-07-24T11:09:21Z</time>
      </trkpt>
      <trkpt lat="42.41266" lon="0.10918">
        <ele>578.2</ele>
        <time>2016-07-24T11:09:23Z</time>
      </trkpt>
      <trkpt lat="42.41269" lon="0.1092">
        <ele>578.2</ele>
        <time>2016-07-24T11:09:25Z</time>
      </trkpt>
      <trkpt lat="42.41271" lon="0.10927">
        <ele>576.2</ele>
        <time>2016-07-24T11:09:27Z</time>
      </trkpt>
      <trkpt lat="42.41272" lon="0.10933">
        <ele>574.6</ele>
        <time>2016-07-24T11:09:29Z</time>
      </trkpt>
      <trkpt lat="42.41275" lon="0.10938">
        <ele>573.3</ele>
        <time>2016-07-24T11:09:31Z</time>
      </trkpt>
      <trkpt lat="42.41278" lon="0.1094">
        <ele>572.8</ele>
        <time>2016-07-24T11:09:32Z</time>
      </trkpt>
      <trkpt lat="42.41281" lon="0.10942">
        <ele>572.6</ele>
        <time>2016-07-24T11:09:33Z</time>
      </trkpt>
      <trkpt lat="42.41285" lon="0.10944">
        <ele>572.3</ele>
        <time>2016-07-24T11:09:35Z</time>
      </trkpt>
      <trkpt lat="42.41287" lon="0.10946">
        <ele>571.7</ele>
        <time>2016-07-24T11:09:44Z</time>
      </trkpt>
      <trkpt lat="42.41289" lon="0.10949">
        <ele>570.7</ele>
        <time>2016-07-24T11:09:47Z</time>
      </trkpt>
      <trkpt lat="42.41292" lon="0.10955">
        <ele>569.2</ele>
        <time>2016-07-24T11:09:49Z</time>
      </trkpt>
      <trkpt lat="42.41295" lon="0.10959">
        <ele>568.6</ele>
        <time>2016-07-24T11:09:50Z</time>
      </trkpt>
      <trkpt lat="42.41297" lon="0.10961">
        <ele>568.7</ele>
        <time>2016-07-24T11:09:51Z</time>
      </trkpt>
      <trkpt lat="42.413" lon="0.10964">
        <ele>569</ele>
        <time>2016-07-24T11:09:53Z</time>
      </trkpt>
      <trkpt lat="42.41303" lon="0.10967">
        <ele>569.1</ele>
        <time>2016-07-24T11:09:55Z</time>
      </trkpt>
      <trkpt lat="42.41307" lon="0.10972">
        <ele>569.1</ele>
        <time>2016-07-24T11:09:57Z</time>
      </trkpt>
      <trkpt lat="42.4131" lon="0.10977">
        <ele>569.1</ele>
        <time>2016-07-24T11:09:59Z</time>
      </trkpt>
      <trkpt lat="42.41313" lon="0.1098">
        <ele>569</ele>
        <time>2016-07-24T11:10:01Z</time>
      </trkpt>
      <trkpt lat="42.41316" lon="0.10984">
        <ele>568.9</ele>
        <time>2016-07-24T11:10:17Z</time>
      </trkpt>
      <trkpt lat="42.41319" lon="0.10988">
        <ele>568.7</ele>
        <time>2016-07-24T11:10:19Z</time>
      </trkpt>
      <trkpt lat="42.41321" lon="0.10991">
        <ele>568.5</ele>
        <time>2016-07-24T11:10:20Z</time>
      </trkpt>
      <trkpt lat="42.41323" lon="0.10994">
        <ele>568.3</ele>
        <time>2016-07-24T11:10:21Z</time>
      </trkpt>
      <trkpt lat="42.41326" lon="0.10997">
        <ele>568.2</ele>
        <time>2016-07-24T11:10:22Z</time>
      </trkpt>
      <trkpt lat="42.41329" lon="0.10998">
        <ele>568.2</ele>
        <time>2016-07-24T11:10:23Z</time>
      </trkpt>
      <trkpt lat="42.41332" lon="0.11001">
        <ele>568.1</ele>
        <time>2016-07-24T11:10:24Z</time>
      </trkpt>
      <trkpt lat="42.41335" lon="0.11003">
        <ele>567.8</ele>
        <time>2016-07-24T11:10:25Z</time>
      </trkpt>
      <trkpt lat="42.41338" lon="0.11007">
        <ele>567.3</ele>
        <time>2016-07-24T11:10:26Z</time>
      </trkpt>
      <trkpt lat="42.4134" lon="0.11011">
        <ele>566.7</ele>
        <time>2016-07-24T11:10:27Z</time>
      </trkpt>
      <trkpt lat="42.41341" lon="0.11016">
        <ele>565.9</ele>
        <time>2016-07-24T11:10:28Z</time>
      </trkpt>
      <trkpt lat="42.41343" lon="0.11021">
        <ele>565</ele>
        <time>2016-07-24T11:10:29Z</time>
      </trkpt>
      <trkpt lat="42.41344" lon="0.11026">
        <ele>564.2</ele>
        <time>2016-07-24T11:10:30Z</time>
      </trkpt>
      <trkpt lat="42.41346" lon="0.11029">
        <ele>563.5</ele>
        <time>2016-07-24T11:10:31Z</time>
      </trkpt>
      <trkpt lat="42.41348" lon="0.11032">
        <ele>562.9</ele>
        <time>2016-07-24T11:10:32Z</time>
      </trkpt>
      <trkpt lat="42.41351" lon="0.11034">
        <ele>562.5</ele>
        <time>2016-07-24T11:10:33Z</time>
      </trkpt>
      <trkpt lat="42.41354" lon="0.11036">
        <ele>562.3</ele>
        <time>2016-07-24T11:10:34Z</time>
      </trkpt>
      <trkpt lat="42.41356" lon="0.11037">
        <ele>562</ele>
        <time>2016-07-24T11:10:35Z</time>
      </trkpt>
      <trkpt lat="42.41359" lon="0.11039">
        <ele>561.6</ele>
        <time>2016-07-24T11:10:36Z</time>
      </trkpt>
      <trkpt lat="42.41361" lon="0.11042">
        <ele>561</ele>
        <time>2016-07-24T11:10:37Z</time>
      </trkpt>
      <trkpt lat="42.41363" lon="0.11045">
        <ele>560.8</ele>
        <time>2016-07-24T11:10:38Z</time>
      </trkpt>
      <trkpt lat="42.41366" lon="0.11049">
        <ele>560.6</ele>
        <time>2016-07-24T11:10:39Z</time>
      </trkpt>
      <trkpt lat="42.4137" lon="0.11052">
        <ele>560.3</ele>
        <time>2016-07-24T11:10:40Z</time>
      </trkpt>
      <trkpt lat="42.41373" lon="0.11055">
        <ele>560.1</ele>
        <time>2016-07-24T11:10:41Z</time>
      </trkpt>
      <trkpt lat="42.41376" lon="0.11058">
        <ele>560.1</ele>
        <time>2016-07-24T11:10:42Z</time>
      </trkpt>
      <trkpt lat="42.41379" lon="0.11061">
        <ele>560.5</ele>
        <time>2016-07-24T11:10:43Z</time>
      </trkpt>
      <trkpt lat="42.41382" lon="0.11065">
        <ele>560.9</ele>
        <time>2016-07-24T11:10:44Z</time>
      </trkpt>
      <trkpt lat="42.41385" lon="0.11068">
        <ele>561.2</ele>
        <time>2016-07-24T11:10:45Z</time>
      </trkpt>
      <trkpt lat="42.41387" lon="0.11072">
        <ele>561.4</ele>
        <time>2016-07-24T11:10:46Z</time>
      </trkpt>
      <trkpt lat="42.41389" lon="0.11075">
        <ele>561.7</ele>
        <time>2016-07-24T11:10:47Z</time>
      </trkpt>
      <trkpt lat="42.41391" lon="0.11078">
        <ele>562</ele>
        <time>2016-07-24T11:10:48Z</time>
      </trkpt>
      <trkpt lat="42.41394" lon="0.11081">
        <ele>562.2</ele>
        <time>2016-07-24T11:10:49Z</time>
      </trkpt>
      <trkpt lat="42.41396" lon="0.11084">
        <ele>562.4</ele>
        <time>2016-07-24T11:10:50Z</time>
      </trkpt>
      <trkpt lat="42.41399" lon="0.1109">
        <ele>562.7</ele>
        <time>2016-07-24T11:10:52Z</time>
      </trkpt>
      <trkpt lat="42.41401" lon="0.11093">
        <ele>562.9</ele>
        <time>2016-07-24T11:10:53Z</time>
      </trkpt>
      <trkpt lat="42.41404" lon="0.11097">
        <ele>563.2</ele>
        <time>2016-07-24T11:10:55Z</time>
      </trkpt>
      <trkpt lat="42.41407" lon="0.11101">
        <ele>563.5</ele>
        <time>2016-07-24T11:10:57Z</time>
      </trkpt>
      <trkpt lat="42.41409" lon="0.11106">
        <ele>563.5</ele>
        <time>2016-07-24T11:10:59Z</time>
      </trkpt>
      <trkpt lat="42.41411" lon="0.1111">
        <ele>563.5</ele>
        <time>2016-07-24T11:11:01Z</time>
      </trkpt>
      <trkpt lat="42.41412" lon="0.11115">
        <ele>563.4</ele>
        <time>2016-07-24T11:11:03Z</time>
      </trkpt>
      <trkpt lat="42.41413" lon="0.1112">
        <ele>563.2</ele>
        <time>2016-07-24T11:11:05Z</time>
      </trkpt>
      <trkpt lat="42.41413" lon="0.11125">
        <ele>562.8</ele>
        <time>2016-07-24T11:11:07Z</time>
      </trkpt>
      <trkpt lat="42.41413" lon="0.11131">
        <ele>562.8</ele>
        <time>2016-07-24T11:11:09Z</time>
      </trkpt>
      <trkpt lat="42.41412" lon="0.11137">
        <ele>562.8</ele>
        <time>2016-07-24T11:11:11Z</time>
      </trkpt>
      <trkpt lat="42.41412" lon="0.11142">
        <ele>562.7</ele>
        <time>2016-07-24T11:11:13Z</time>
      </trkpt>
      <trkpt lat="42.41411" lon="0.11147">
        <ele>562.6</ele>
        <time>2016-07-24T11:11:15Z</time>
      </trkpt>
      <trkpt lat="42.4141" lon="0.11152">
        <ele>562.5</ele>
        <time>2016-07-24T11:11:17Z</time>
      </trkpt>
      <trkpt lat="42.41409" lon="0.11157">
        <ele>562.4</ele>
        <time>2016-07-24T11:11:19Z</time>
      </trkpt>
      <trkpt lat="42.41408" lon="0.11161">
        <ele>562.3</ele>
        <time>2016-07-24T11:11:21Z</time>
      </trkpt>
      <trkpt lat="42.41406" lon="0.11166">
        <ele>562.1</ele>
        <time>2016-07-24T11:11:23Z</time>
      </trkpt>
      <trkpt lat="42.41406" lon="0.1117">
        <ele>562.1</ele>
        <time>2016-07-24T11:11:25Z</time>
      </trkpt>
      <trkpt lat="42.41407" lon="0.11175">
        <ele>562.3</ele>
        <time>2016-07-24T11:11:27Z</time>
      </trkpt>
      <trkpt lat="42.41408" lon="0.11178">
        <ele>562.6</ele>
        <time>2016-07-24T11:11:29Z</time>
      </trkpt>
      <trkpt lat="42.4141" lon="0.11182">
        <ele>563</ele>
        <time>2016-07-24T11:11:31Z</time>
      </trkpt>
      <trkpt lat="42.41412" lon="0.11185">
        <ele>563.4</ele>
        <time>2016-07-24T11:11:33Z</time>
      </trkpt>
      <trkpt lat="42.41415" lon="0.11188">
        <ele>564</ele>
        <time>2016-07-24T11:11:35Z</time>
      </trkpt>
      <trkpt lat="42.4142" lon="0.11191">
        <ele>564.8</ele>
        <time>2016-07-24T11:11:37Z</time>
      </trkpt>
      <trkpt lat="42.41422" lon="0.11193">
        <ele>565.2</ele>
        <time>2016-07-24T11:11:38Z</time>
      </trkpt>
      <trkpt lat="42.41425" lon="0.11195">
        <ele>565.7</ele>
        <time>2016-07-24T11:11:39Z</time>
      </trkpt>
      <trkpt lat="42.41428" lon="0.11197">
        <ele>566.1</ele>
        <time>2016-07-24T11:11:40Z</time>
      </trkpt>
      <trkpt lat="42.4143" lon="0.11199">
        <ele>566.6</ele>
        <time>2016-07-24T11:11:41Z</time>
      </trkpt>
      <trkpt lat="42.41433" lon="0.11201">
        <ele>567</ele>
        <time>2016-07-24T11:11:42Z</time>
      </trkpt>
      <trkpt lat="42.41436" lon="0.11204">
        <ele>567.5</ele>
        <time>2016-07-24T11:11:43Z</time>
      </trkpt>
      <trkpt lat="42.41439" lon="0.11206">
        <ele>568</ele>
        <time>2016-07-24T11:11:44Z</time>
      </trkpt>
      <trkpt lat="42.41442" lon="0.11209">
        <ele>568.4</ele>
        <time>2016-07-24T11:11:45Z</time>
      </trkpt>
      <trkpt lat="42.41445" lon="0.11211">
        <ele>568.5</ele>
        <time>2016-07-24T11:11:46Z</time>
      </trkpt>
      <trkpt lat="42.41448" lon="0.11214">
        <ele>568.6</ele>
        <time>2016-07-24T11:11:47Z</time>
      </trkpt>
      <trkpt lat="42.41451" lon="0.11217">
        <ele>568.7</ele>
        <time>2016-07-24T11:11:48Z</time>
      </trkpt>
      <trkpt lat="42.41454" lon="0.11219">
        <ele>568.8</ele>
        <time>2016-07-24T11:11:49Z</time>
      </trkpt>
      <trkpt lat="42.41457" lon="0.11222">
        <ele>568.8</ele>
        <time>2016-07-24T11:11:50Z</time>
      </trkpt>
      <trkpt lat="42.4146" lon="0.11225">
        <ele>569.2</ele>
        <time>2016-07-24T11:11:51Z</time>
      </trkpt>
      <trkpt lat="42.41463" lon="0.11228">
        <ele>569.7</ele>
        <time>2016-07-24T11:11:52Z</time>
      </trkpt>
      <trkpt lat="42.41466" lon="0.11231">
        <ele>570.1</ele>
        <time>2016-07-24T11:11:53Z</time>
      </trkpt>
      <trkpt lat="42.41469" lon="0.11235">
        <ele>570.4</ele>
        <time>2016-07-24T11:11:54Z</time>
      </trkpt>
      <trkpt lat="42.41471" lon="0.11238">
        <ele>570.6</ele>
        <time>2016-07-24T11:11:55Z</time>
      </trkpt>
      <trkpt lat="42.41474" lon="0.11242">
        <ele>570.8</ele>
        <time>2016-07-24T11:11:56Z</time>
      </trkpt>
      <trkpt lat="42.41476" lon="0.11245">
        <ele>570.9</ele>
        <time>2016-07-24T11:11:57Z</time>
      </trkpt>
      <trkpt lat="42.41479" lon="0.11249">
        <ele>571</ele>
        <time>2016-07-24T11:11:58Z</time>
      </trkpt>
      <trkpt lat="42.41482" lon="0.11252">
        <ele>571.2</ele>
        <time>2016-07-24T11:11:59Z</time>
      </trkpt>
      <trkpt lat="42.41484" lon="0.11255">
        <ele>571.5</ele>
        <time>2016-07-24T11:12:00Z</time>
      </trkpt>
      <trkpt lat="42.41487" lon="0.11257">
        <ele>571.8</ele>
        <time>2016-07-24T11:12:01Z</time>
      </trkpt>
      <trkpt lat="42.4149" lon="0.1126">
        <ele>572.1</ele>
        <time>2016-07-24T11:12:02Z</time>
      </trkpt>
      <trkpt lat="42.41493" lon="0.11262">
        <ele>572.6</ele>
        <time>2016-07-24T11:12:03Z</time>
      </trkpt>
      <trkpt lat="42.41496" lon="0.11264">
        <ele>573.1</ele>
        <time>2016-07-24T11:12:04Z</time>
      </trkpt>
      <trkpt lat="42.415" lon="0.11266">
        <ele>573.7</ele>
        <time>2016-07-24T11:12:05Z</time>
      </trkpt>
      <trkpt lat="42.41505" lon="0.11268">
        <ele>574.4</ele>
        <time>2016-07-24T11:12:06Z</time>
      </trkpt>
      <trkpt lat="42.4151" lon="0.11269">
        <ele>575.7</ele>
        <time>2016-07-24T11:12:07Z</time>
      </trkpt>
      <trkpt lat="42.41515" lon="0.1127">
        <ele>576.6</ele>
        <time>2016-07-24T11:12:08Z</time>
      </trkpt>
      <trkpt lat="42.4152" lon="0.11271">
        <ele>577.5</ele>
        <time>2016-07-24T11:12:09Z</time>
      </trkpt>
      <trkpt lat="42.41524" lon="0.11272">
        <ele>578.5</ele>
        <time>2016-07-24T11:12:10Z</time>
      </trkpt>
      <trkpt lat="42.41528" lon="0.11274">
        <ele>579.1</ele>
        <time>2016-07-24T11:12:11Z</time>
      </trkpt>
      <trkpt lat="42.41532" lon="0.11276">
        <ele>579.6</ele>
        <time>2016-07-24T11:12:12Z</time>
      </trkpt>
      <trkpt lat="42.41536" lon="0.11279">
        <ele>580</ele>
        <time>2016-07-24T11:12:13Z</time>
      </trkpt>
      <trkpt lat="42.41541" lon="0.11283">
        <ele>580.2</ele>
        <time>2016-07-24T11:12:14Z</time>
      </trkpt>
      <trkpt lat="42.41546" lon="0.11287">
        <ele>579.9</ele>
        <time>2016-07-24T11:12:15Z</time>
      </trkpt>
      <trkpt lat="42.41551" lon="0.11293">
        <ele>579.6</ele>
        <time>2016-07-24T11:12:16Z</time>
      </trkpt>
      <trkpt lat="42.41557" lon="0.11299">
        <ele>579.5</ele>
        <time>2016-07-24T11:12:17Z</time>
      </trkpt>
      <trkpt lat="42.41563" lon="0.11305">
        <ele>579.5</ele>
        <time>2016-07-24T11:12:18Z</time>
      </trkpt>
      <trkpt lat="42.4157" lon="0.1131">
        <ele>579.4</ele>
        <time>2016-07-24T11:12:19Z</time>
      </trkpt>
      <trkpt lat="42.41577" lon="0.11316">
        <ele>579.3</ele>
        <time>2016-07-24T11:12:20Z</time>
      </trkpt>
      <trkpt lat="42.41584" lon="0.1132">
        <ele>579.8</ele>
        <time>2016-07-24T11:12:21Z</time>
      </trkpt>
      <trkpt lat="42.41591" lon="0.11324">
        <ele>580</ele>
        <time>2016-07-24T11:12:22Z</time>
      </trkpt>
      <trkpt lat="42.41598" lon="0.11327">
        <ele>580.3</ele>
        <time>2016-07-24T11:12:23Z</time>
      </trkpt>
      <trkpt lat="42.41604" lon="0.11329">
        <ele>580.7</ele>
        <time>2016-07-24T11:12:24Z</time>
      </trkpt>
      <trkpt lat="42.41611" lon="0.11332">
        <ele>581.1</ele>
        <time>2016-07-24T11:12:25Z</time>
      </trkpt>
      <trkpt lat="42.41616" lon="0.11334">
        <ele>581.5</ele>
        <time>2016-07-24T11:12:26Z</time>
      </trkpt>
      <trkpt lat="42.41621" lon="0.11336">
        <ele>581.8</ele>
        <time>2016-07-24T11:12:27Z</time>
      </trkpt>
      <trkpt lat="42.41626" lon="0.11336">
        <ele>582.3</ele>
        <time>2016-07-24T11:12:28Z</time>
      </trkpt>
      <trkpt lat="42.41631" lon="0.11339">
        <ele>582</ele>
        <time>2016-07-24T11:12:29Z</time>
      </trkpt>
      <trkpt lat="42.41635" lon="0.11342">
        <ele>581.7</ele>
        <time>2016-07-24T11:12:30Z</time>
      </trkpt>
      <trkpt lat="42.4164" lon="0.11346">
        <ele>581</ele>
        <time>2016-07-24T11:12:31Z</time>
      </trkpt>
      <trkpt lat="42.41644" lon="0.11349">
        <ele>580.8</ele>
        <time>2016-07-24T11:12:32Z</time>
      </trkpt>
      <trkpt lat="42.41649" lon="0.11351">
        <ele>580.7</ele>
        <time>2016-07-24T11:12:33Z</time>
      </trkpt>
      <trkpt lat="42.41654" lon="0.11352">
        <ele>580.9</ele>
        <time>2016-07-24T11:12:34Z</time>
      </trkpt>
      <trkpt lat="42.41659" lon="0.11354">
        <ele>580.9</ele>
        <time>2016-07-24T11:12:35Z</time>
      </trkpt>
      <trkpt lat="42.41664" lon="0.11357">
        <ele>580.7</ele>
        <time>2016-07-24T11:12:36Z</time>
      </trkpt>
      <trkpt lat="42.41668" lon="0.11359">
        <ele>580.6</ele>
        <time>2016-07-24T11:12:37Z</time>
      </trkpt>
      <trkpt lat="42.41672" lon="0.11362">
        <ele>580.2</ele>
        <time>2016-07-24T11:12:38Z</time>
      </trkpt>
      <trkpt lat="42.41676" lon="0.11365">
        <ele>580</ele>
        <time>2016-07-24T11:12:39Z</time>
      </trkpt>
      <trkpt lat="42.41681" lon="0.11368">
        <ele>579.8</ele>
        <time>2016-07-24T11:12:40Z</time>
      </trkpt>
      <trkpt lat="42.41685" lon="0.1137">
        <ele>579.6</ele>
        <time>2016-07-24T11:12:41Z</time>
      </trkpt>
      <trkpt lat="42.41689" lon="0.11375">
        <ele>578.7</ele>
        <time>2016-07-24T11:12:42Z</time>
      </trkpt>
      <trkpt lat="42.41692" lon="0.11381">
        <ele>578</ele>
        <time>2016-07-24T11:12:43Z</time>
      </trkpt>
      <trkpt lat="42.41695" lon="0.11386">
        <ele>577.4</ele>
        <time>2016-07-24T11:12:44Z</time>
      </trkpt>
      <trkpt lat="42.41699" lon="0.11391">
        <ele>576.9</ele>
        <time>2016-07-24T11:12:45Z</time>
      </trkpt>
      <trkpt lat="42.41702" lon="0.11394">
        <ele>576.7</ele>
        <time>2016-07-24T11:12:46Z</time>
      </trkpt>
      <trkpt lat="42.41706" lon="0.11397">
        <ele>576.5</ele>
        <time>2016-07-24T11:12:47Z</time>
      </trkpt>
      <trkpt lat="42.4171" lon="0.114">
        <ele>576.4</ele>
        <time>2016-07-24T11:12:48Z</time>
      </trkpt>
      <trkpt lat="42.41713" lon="0.11402">
        <ele>576.5</ele>
        <time>2016-07-24T11:12:49Z</time>
      </trkpt>
      <trkpt lat="42.41717" lon="0.11405">
        <ele>576.7</ele>
        <time>2016-07-24T11:12:50Z</time>
      </trkpt>
      <trkpt lat="42.4172" lon="0.11405">
        <ele>577.1</ele>
        <time>2016-07-24T11:12:51Z</time>
      </trkpt>
      <trkpt lat="42.41725" lon="0.11406">
        <ele>577.6</ele>
        <time>2016-07-24T11:12:52Z</time>
      </trkpt>
      <trkpt lat="42.41729" lon="0.11407">
        <ele>578</ele>
        <time>2016-07-24T11:12:53Z</time>
      </trkpt>
      <trkpt lat="42.41734" lon="0.11411">
        <ele>578</ele>
        <time>2016-07-24T11:12:54Z</time>
      </trkpt>
      <trkpt lat="42.41738" lon="0.11413">
        <ele>578</ele>
        <time>2016-07-24T11:12:55Z</time>
      </trkpt>
      <trkpt lat="42.41742" lon="0.11417">
        <ele>577.7</ele>
        <time>2016-07-24T11:12:56Z</time>
      </trkpt>
      <trkpt lat="42.41747" lon="0.11421">
        <ele>577.4</ele>
        <time>2016-07-24T11:12:57Z</time>
      </trkpt>
      <trkpt lat="42.41751" lon="0.11425">
        <ele>577.1</ele>
        <time>2016-07-24T11:12:58Z</time>
      </trkpt>
      <trkpt lat="42.41756" lon="0.11426">
        <ele>577.4</ele>
        <time>2016-07-24T11:12:59Z</time>
      </trkpt>
      <trkpt lat="42.4176" lon="0.11427">
        <ele>577.8</ele>
        <time>2016-07-24T11:13:00Z</time>
      </trkpt>
      <trkpt lat="42.41764" lon="0.11429">
        <ele>578</ele>
        <time>2016-07-24T11:13:01Z</time>
      </trkpt>
      <trkpt lat="42.41769" lon="0.1143">
        <ele>578.3</ele>
        <time>2016-07-24T11:13:02Z</time>
      </trkpt>
      <trkpt lat="42.41773" lon="0.11433">
        <ele>578</ele>
        <time>2016-07-24T11:13:03Z</time>
      </trkpt>
      <trkpt lat="42.41778" lon="0.11437">
        <ele>577.4</ele>
        <time>2016-07-24T11:13:04Z</time>
      </trkpt>
      <trkpt lat="42.41783" lon="0.11441">
        <ele>577</ele>
        <time>2016-07-24T11:13:05Z</time>
      </trkpt>
      <trkpt lat="42.41787" lon="0.11444">
        <ele>576.6</ele>
        <time>2016-07-24T11:13:06Z</time>
      </trkpt>
      <trkpt lat="42.41788" lon="0.11451">
        <ele>574.8</ele>
        <time>2016-07-24T11:13:08Z</time>
      </trkpt>
      <trkpt lat="42.41787" lon="0.11457">
        <ele>573.1</ele>
        <time>2016-07-24T11:13:09Z</time>
      </trkpt>
      <trkpt lat="42.41785" lon="0.11462">
        <ele>571.7</ele>
        <time>2016-07-24T11:13:10Z</time>
      </trkpt>
      <trkpt lat="42.41783" lon="0.11467">
        <ele>570.8</ele>
        <time>2016-07-24T11:13:11Z</time>
      </trkpt>
      <trkpt lat="42.41781" lon="0.11474">
        <ele>569.6</ele>
        <time>2016-07-24T11:13:12Z</time>
      </trkpt>
      <trkpt lat="42.41779" lon="0.11482">
        <ele>568.2</ele>
        <time>2016-07-24T11:13:13Z</time>
      </trkpt>
      <trkpt lat="42.41778" lon="0.1149">
        <ele>567.1</ele>
        <time>2016-07-24T11:13:14Z</time>
      </trkpt>
      <trkpt lat="42.41776" lon="0.11498">
        <ele>565.8</ele>
        <time>2016-07-24T11:13:15Z</time>
      </trkpt>
      <trkpt lat="42.41775" lon="0.11506">
        <ele>564.5</ele>
        <time>2016-07-24T11:13:16Z</time>
      </trkpt>
      <trkpt lat="42.41775" lon="0.11515">
        <ele>563.2</ele>
        <time>2016-07-24T11:13:17Z</time>
      </trkpt>
      <trkpt lat="42.41775" lon="0.11525">
        <ele>561.8</ele>
        <time>2016-07-24T11:13:18Z</time>
      </trkpt>
      <trkpt lat="42.41774" lon="0.11534">
        <ele>560.4</ele>
        <time>2016-07-24T11:13:19Z</time>
      </trkpt>
      <trkpt lat="42.41773" lon="0.11544">
        <ele>559.2</ele>
        <time>2016-07-24T11:13:20Z</time>
      </trkpt>
      <trkpt lat="42.41773" lon="0.11554">
        <ele>558.7</ele>
        <time>2016-07-24T11:13:21Z</time>
      </trkpt>
      <trkpt lat="42.41773" lon="0.11564">
        <ele>558.2</ele>
        <time>2016-07-24T11:13:22Z</time>
      </trkpt>
      <trkpt lat="42.41772" lon="0.11573">
        <ele>557.7</ele>
        <time>2016-07-24T11:13:23Z</time>
      </trkpt>
      <trkpt lat="42.41772" lon="0.11582">
        <ele>557.2</ele>
        <time>2016-07-24T11:13:24Z</time>
      </trkpt>
      <trkpt lat="42.4177" lon="0.11592">
        <ele>556.7</ele>
        <time>2016-07-24T11:13:25Z</time>
      </trkpt>
      <trkpt lat="42.41768" lon="0.116">
        <ele>556.2</ele>
        <time>2016-07-24T11:13:26Z</time>
      </trkpt>
      <trkpt lat="42.41767" lon="0.11609">
        <ele>555.8</ele>
        <time>2016-07-24T11:13:27Z</time>
      </trkpt>
      <trkpt lat="42.41765" lon="0.11618">
        <ele>555.4</ele>
        <time>2016-07-24T11:13:28Z</time>
      </trkpt>
      <trkpt lat="42.41764" lon="0.11626">
        <ele>555</ele>
        <time>2016-07-24T11:13:29Z</time>
      </trkpt>
      <trkpt lat="42.41762" lon="0.11634">
        <ele>554.8</ele>
        <time>2016-07-24T11:13:30Z</time>
      </trkpt>
      <trkpt lat="42.4176" lon="0.11641">
        <ele>554.7</ele>
        <time>2016-07-24T11:13:31Z</time>
      </trkpt>
      <trkpt lat="42.41759" lon="0.11649">
        <ele>554.5</ele>
        <time>2016-07-24T11:13:32Z</time>
      </trkpt>
      <trkpt lat="42.41757" lon="0.11656">
        <ele>554.4</ele>
        <time>2016-07-24T11:13:33Z</time>
      </trkpt>
      <trkpt lat="42.41756" lon="0.11663">
        <ele>554.3</ele>
        <time>2016-07-24T11:13:34Z</time>
      </trkpt>
      <trkpt lat="42.41754" lon="0.11671">
        <ele>554.2</ele>
        <time>2016-07-24T11:13:35Z</time>
      </trkpt>
      <trkpt lat="42.41752" lon="0.11679">
        <ele>554</ele>
        <time>2016-07-24T11:13:36Z</time>
      </trkpt>
      <trkpt lat="42.41749" lon="0.11687">
        <ele>553.9</ele>
        <time>2016-07-24T11:13:37Z</time>
      </trkpt>
      <trkpt lat="42.41746" lon="0.11694">
        <ele>553.8</ele>
        <time>2016-07-24T11:13:38Z</time>
      </trkpt>
      <trkpt lat="42.41743" lon="0.11701">
        <ele>553.7</ele>
        <time>2016-07-24T11:13:39Z</time>
      </trkpt>
      <trkpt lat="42.4174" lon="0.11706">
        <ele>553.7</ele>
        <time>2016-07-24T11:13:40Z</time>
      </trkpt>
      <trkpt lat="42.41737" lon="0.11713">
        <ele>553.6</ele>
        <time>2016-07-24T11:13:41Z</time>
      </trkpt>
      <trkpt lat="42.41733" lon="0.11718">
        <ele>553.7</ele>
        <time>2016-07-24T11:13:42Z</time>
      </trkpt>
      <trkpt lat="42.41729" lon="0.11725">
        <ele>553.7</ele>
        <time>2016-07-24T11:13:43Z</time>
      </trkpt>
      <trkpt lat="42.41725" lon="0.11731">
        <ele>553.7</ele>
        <time>2016-07-24T11:13:44Z</time>
      </trkpt>
      <trkpt lat="42.41721" lon="0.11738">
        <ele>553.8</ele>
        <time>2016-07-24T11:13:45Z</time>
      </trkpt>
      <trkpt lat="42.41716" lon="0.11745">
        <ele>553.9</ele>
        <time>2016-07-24T11:13:46Z</time>
      </trkpt>
      <trkpt lat="42.41713" lon="0.11752">
        <ele>553.9</ele>
        <time>2016-07-24T11:13:47Z</time>
      </trkpt>
      <trkpt lat="42.4171" lon="0.11758">
        <ele>554</ele>
        <time>2016-07-24T11:13:48Z</time>
      </trkpt>
      <trkpt lat="42.41708" lon="0.11765">
        <ele>554</ele>
        <time>2016-07-24T11:13:49Z</time>
      </trkpt>
      <trkpt lat="42.41705" lon="0.11774">
        <ele>554</ele>
        <time>2016-07-24T11:13:50Z</time>
      </trkpt>
      <trkpt lat="42.41703" lon="0.11781">
        <ele>554</ele>
        <time>2016-07-24T11:13:51Z</time>
      </trkpt>
      <trkpt lat="42.41701" lon="0.11788">
        <ele>554</ele>
        <time>2016-07-24T11:13:52Z</time>
      </trkpt>
      <trkpt lat="42.41698" lon="0.11794">
        <ele>554</ele>
        <time>2016-07-24T11:13:53Z</time>
      </trkpt>
      <trkpt lat="42.41696" lon="0.11802">
        <ele>554</ele>
        <time>2016-07-24T11:13:54Z</time>
      </trkpt>
      <trkpt lat="42.41693" lon="0.11808">
        <ele>554</ele>
        <time>2016-07-24T11:13:55Z</time>
      </trkpt>
      <trkpt lat="42.41691" lon="0.11816">
        <ele>553.9</ele>
        <time>2016-07-24T11:13:56Z</time>
      </trkpt>
      <trkpt lat="42.41688" lon="0.11823">
        <ele>553.9</ele>
        <time>2016-07-24T11:13:57Z</time>
      </trkpt>
      <trkpt lat="42.41686" lon="0.11831">
        <ele>553.9</ele>
        <time>2016-07-24T11:13:58Z</time>
      </trkpt>
      <trkpt lat="42.41684" lon="0.11839">
        <ele>553.8</ele>
        <time>2016-07-24T11:13:59Z</time>
      </trkpt>
      <trkpt lat="42.41683" lon="0.11846">
        <ele>553.8</ele>
        <time>2016-07-24T11:14:00Z</time>
      </trkpt>
      <trkpt lat="42.41681" lon="0.11854">
        <ele>553.8</ele>
        <time>2016-07-24T11:14:01Z</time>
      </trkpt>
      <trkpt lat="42.41679" lon="0.11862">
        <ele>553.7</ele>
        <time>2016-07-24T11:14:02Z</time>
      </trkpt>
      <trkpt lat="42.41679" lon="0.1187">
        <ele>553.7</ele>
        <time>2016-07-24T11:14:03Z</time>
      </trkpt>
      <trkpt lat="42.41677" lon="0.11877">
        <ele>553.6</ele>
        <time>2016-07-24T11:14:04Z</time>
      </trkpt>
      <trkpt lat="42.41677" lon="0.11886">
        <ele>553.5</ele>
        <time>2016-07-24T11:14:05Z</time>
      </trkpt>
      <trkpt lat="42.41676" lon="0.11893">
        <ele>553.4</ele>
        <time>2016-07-24T11:14:06Z</time>
      </trkpt>
      <trkpt lat="42.41676" lon="0.11902">
        <ele>553.3</ele>
        <time>2016-07-24T11:14:07Z</time>
      </trkpt>
      <trkpt lat="42.41676" lon="0.11909">
        <ele>553.2</ele>
        <time>2016-07-24T11:14:08Z</time>
      </trkpt>
      <trkpt lat="42.41676" lon="0.11918">
        <ele>553.1</ele>
        <time>2016-07-24T11:14:09Z</time>
      </trkpt>
      <trkpt lat="42.41675" lon="0.11926">
        <ele>553</ele>
        <time>2016-07-24T11:14:10Z</time>
      </trkpt>
      <trkpt lat="42.41675" lon="0.11934">
        <ele>552.9</ele>
        <time>2016-07-24T11:14:11Z</time>
      </trkpt>
      <trkpt lat="42.41674" lon="0.11942">
        <ele>552.8</ele>
        <time>2016-07-24T11:14:12Z</time>
      </trkpt>
      <trkpt lat="42.41674" lon="0.11951">
        <ele>552.7</ele>
        <time>2016-07-24T11:14:13Z</time>
      </trkpt>
      <trkpt lat="42.41673" lon="0.11959">
        <ele>552.6</ele>
        <time>2016-07-24T11:14:14Z</time>
      </trkpt>
      <trkpt lat="42.41673" lon="0.11968">
        <ele>552.5</ele>
        <time>2016-07-24T11:14:15Z</time>
      </trkpt>
      <trkpt lat="42.41673" lon="0.11976">
        <ele>552.4</ele>
        <time>2016-07-24T11:14:16Z</time>
      </trkpt>
      <trkpt lat="42.41673" lon="0.11985">
        <ele>552.4</ele>
        <time>2016-07-24T11:14:17Z</time>
      </trkpt>
      <trkpt lat="42.41673" lon="0.11993">
        <ele>552.3</ele>
        <time>2016-07-24T11:14:18Z</time>
      </trkpt>
      <trkpt lat="42.41673" lon="0.12001">
        <ele>552.3</ele>
        <time>2016-07-24T11:14:19Z</time>
      </trkpt>
      <trkpt lat="42.41672" lon="0.12009">
        <ele>552.2</ele>
        <time>2016-07-24T11:14:20Z</time>
      </trkpt>
      <trkpt lat="42.4167" lon="0.12017">
        <ele>552.2</ele>
        <time>2016-07-24T11:14:21Z</time>
      </trkpt>
      <trkpt lat="42.41668" lon="0.12025">
        <ele>552.1</ele>
        <time>2016-07-24T11:14:22Z</time>
      </trkpt>
      <trkpt lat="42.41665" lon="0.12031">
        <ele>552.1</ele>
        <time>2016-07-24T11:14:23Z</time>
      </trkpt>
      <trkpt lat="42.41662" lon="0.12039">
        <ele>552</ele>
        <time>2016-07-24T11:14:24Z</time>
      </trkpt>
      <trkpt lat="42.41659" lon="0.12046">
        <ele>552</ele>
        <time>2016-07-24T11:14:25Z</time>
      </trkpt>
      <trkpt lat="42.41656" lon="0.12053">
        <ele>552</ele>
        <time>2016-07-24T11:14:26Z</time>
      </trkpt>
      <trkpt lat="42.41654" lon="0.1206">
        <ele>552</ele>
        <time>2016-07-24T11:14:27Z</time>
      </trkpt>
      <trkpt lat="42.41651" lon="0.12067">
        <ele>552</ele>
        <time>2016-07-24T11:14:28Z</time>
      </trkpt>
      <trkpt lat="42.41648" lon="0.12074">
        <ele>552</ele>
        <time>2016-07-24T11:14:29Z</time>
      </trkpt>
      <trkpt lat="42.41645" lon="0.12081">
        <ele>552</ele>
        <time>2016-07-24T11:14:30Z</time>
      </trkpt>
      <trkpt lat="42.41643" lon="0.12088">
        <ele>552</ele>
        <time>2016-07-24T11:14:31Z</time>
      </trkpt>
      <trkpt lat="42.4164" lon="0.12095">
        <ele>552</ele>
        <time>2016-07-24T11:14:32Z</time>
      </trkpt>
      <trkpt lat="42.41637" lon="0.12102">
        <ele>552</ele>
        <time>2016-07-24T11:14:33Z</time>
      </trkpt>
      <trkpt lat="42.41634" lon="0.12109">
        <ele>552</ele>
        <time>2016-07-24T11:14:34Z</time>
      </trkpt>
      <trkpt lat="42.41631" lon="0.12116">
        <ele>552</ele>
        <time>2016-07-24T11:14:35Z</time>
      </trkpt>
      <trkpt lat="42.41628" lon="0.12123">
        <ele>552</ele>
        <time>2016-07-24T11:14:36Z</time>
      </trkpt>
      <trkpt lat="42.41626" lon="0.12131">
        <ele>552.1</ele>
        <time>2016-07-24T11:14:37Z</time>
      </trkpt>
      <trkpt lat="42.41623" lon="0.12138">
        <ele>552.1</ele>
        <time>2016-07-24T11:14:38Z</time>
      </trkpt>
      <trkpt lat="42.41621" lon="0.12145">
        <ele>552.1</ele>
        <time>2016-07-24T11:14:39Z</time>
      </trkpt>
      <trkpt lat="42.41618" lon="0.12151">
        <ele>552.1</ele>
        <time>2016-07-24T11:14:40Z</time>
      </trkpt>
      <trkpt lat="42.41616" lon="0.12159">
        <ele>552</ele>
        <time>2016-07-24T11:14:41Z</time>
      </trkpt>
      <trkpt lat="42.41613" lon="0.12165">
        <ele>552</ele>
        <time>2016-07-24T11:14:42Z</time>
      </trkpt>
      <trkpt lat="42.4161" lon="0.12172">
        <ele>551.9</ele>
        <time>2016-07-24T11:14:43Z</time>
      </trkpt>
      <trkpt lat="42.41607" lon="0.12179">
        <ele>551.8</ele>
        <time>2016-07-24T11:14:44Z</time>
      </trkpt>
      <trkpt lat="42.41604" lon="0.12186">
        <ele>551.7</ele>
        <time>2016-07-24T11:14:45Z</time>
      </trkpt>
      <trkpt lat="42.41601" lon="0.12192">
        <ele>551.5</ele>
        <time>2016-07-24T11:14:46Z</time>
      </trkpt>
      <trkpt lat="42.41598" lon="0.12199">
        <ele>551.4</ele>
        <time>2016-07-24T11:14:47Z</time>
      </trkpt>
      <trkpt lat="42.41596" lon="0.12205">
        <ele>551.2</ele>
        <time>2016-07-24T11:14:48Z</time>
      </trkpt>
      <trkpt lat="42.41593" lon="0.12212">
        <ele>551</ele>
        <time>2016-07-24T11:14:49Z</time>
      </trkpt>
      <trkpt lat="42.4159" lon="0.1222">
        <ele>550.7</ele>
        <time>2016-07-24T11:14:50Z</time>
      </trkpt>
      <trkpt lat="42.41587" lon="0.12227">
        <ele>550.5</ele>
        <time>2016-07-24T11:14:51Z</time>
      </trkpt>
      <trkpt lat="42.41584" lon="0.12235">
        <ele>550.2</ele>
        <time>2016-07-24T11:14:52Z</time>
      </trkpt>
      <trkpt lat="42.41582" lon="0.12242">
        <ele>550</ele>
        <time>2016-07-24T11:14:53Z</time>
      </trkpt>
      <trkpt lat="42.4158" lon="0.12249">
        <ele>549.8</ele>
        <time>2016-07-24T11:14:54Z</time>
      </trkpt>
      <trkpt lat="42.41578" lon="0.12256">
        <ele>549.7</ele>
        <time>2016-07-24T11:14:55Z</time>
      </trkpt>
      <trkpt lat="42.41576" lon="0.12264">
        <ele>549.5</ele>
        <time>2016-07-24T11:14:56Z</time>
      </trkpt>
      <trkpt lat="42.41574" lon="0.12272">
        <ele>549.3</ele>
        <time>2016-07-24T11:14:57Z</time>
      </trkpt>
      <trkpt lat="42.41572" lon="0.1228">
        <ele>549.2</ele>
        <time>2016-07-24T11:14:58Z</time>
      </trkpt>
      <trkpt lat="42.4157" lon="0.12289">
        <ele>549</ele>
        <time>2016-07-24T11:14:59Z</time>
      </trkpt>
      <trkpt lat="42.41567" lon="0.12298">
        <ele>548.6</ele>
        <time>2016-07-24T11:15:00Z</time>
      </trkpt>
      <trkpt lat="42.41565" lon="0.12307">
        <ele>548.1</ele>
        <time>2016-07-24T11:15:01Z</time>
      </trkpt>
      <trkpt lat="42.41563" lon="0.12316">
        <ele>547.6</ele>
        <time>2016-07-24T11:15:02Z</time>
      </trkpt>
      <trkpt lat="42.41561" lon="0.12326">
        <ele>547.1</ele>
        <time>2016-07-24T11:15:03Z</time>
      </trkpt>
      <trkpt lat="42.41558" lon="0.12335">
        <ele>546.5</ele>
        <time>2016-07-24T11:15:04Z</time>
      </trkpt>
      <trkpt lat="42.41555" lon="0.12344">
        <ele>546</ele>
        <time>2016-07-24T11:15:05Z</time>
      </trkpt>
      <trkpt lat="42.41551" lon="0.12353">
        <ele>545.4</ele>
        <time>2016-07-24T11:15:06Z</time>
      </trkpt>
      <trkpt lat="42.41546" lon="0.12362">
        <ele>544.8</ele>
        <time>2016-07-24T11:15:07Z</time>
      </trkpt>
      <trkpt lat="42.41543" lon="0.12372">
        <ele>544.2</ele>
        <time>2016-07-24T11:15:08Z</time>
      </trkpt>
      <trkpt lat="42.41537" lon="0.12381">
        <ele>543.8</ele>
        <time>2016-07-24T11:15:09Z</time>
      </trkpt>
      <trkpt lat="42.41531" lon="0.1239">
        <ele>543.4</ele>
        <time>2016-07-24T11:15:10Z</time>
      </trkpt>
      <trkpt lat="42.41525" lon="0.12399">
        <ele>543.1</ele>
        <time>2016-07-24T11:15:11Z</time>
      </trkpt>
      <trkpt lat="42.41519" lon="0.12409">
        <ele>542.8</ele>
        <time>2016-07-24T11:15:12Z</time>
      </trkpt>
      <trkpt lat="42.41515" lon="0.12419">
        <ele>542.6</ele>
        <time>2016-07-24T11:15:13Z</time>
      </trkpt>
      <trkpt lat="42.41509" lon="0.12428">
        <ele>542.4</ele>
        <time>2016-07-24T11:15:14Z</time>
      </trkpt>
      <trkpt lat="42.41505" lon="0.12439">
        <ele>542.3</ele>
        <time>2016-07-24T11:15:15Z</time>
      </trkpt>
      <trkpt lat="42.415" lon="0.12449">
        <ele>542.2</ele>
        <time>2016-07-24T11:15:16Z</time>
      </trkpt>
      <trkpt lat="42.41496" lon="0.12458">
        <ele>542.1</ele>
        <time>2016-07-24T11:15:17Z</time>
      </trkpt>
      <trkpt lat="42.41493" lon="0.12469">
        <ele>542.1</ele>
        <time>2016-07-24T11:15:18Z</time>
      </trkpt>
      <trkpt lat="42.41488" lon="0.12477">
        <ele>542.1</ele>
        <time>2016-07-24T11:15:19Z</time>
      </trkpt>
      <trkpt lat="42.41484" lon="0.12485">
        <ele>542</ele>
        <time>2016-07-24T11:15:20Z</time>
      </trkpt>
      <trkpt lat="42.41479" lon="0.12493">
        <ele>542</ele>
        <time>2016-07-24T11:15:21Z</time>
      </trkpt>
      <trkpt lat="42.41475" lon="0.12501">
        <ele>541.9</ele>
        <time>2016-07-24T11:15:22Z</time>
      </trkpt>
      <trkpt lat="42.41471" lon="0.12508">
        <ele>541.8</ele>
        <time>2016-07-24T11:15:23Z</time>
      </trkpt>
      <trkpt lat="42.41466" lon="0.12515">
        <ele>541.7</ele>
        <time>2016-07-24T11:15:24Z</time>
      </trkpt>
      <trkpt lat="42.41461" lon="0.12521">
        <ele>541.5</ele>
        <time>2016-07-24T11:15:25Z</time>
      </trkpt>
      <trkpt lat="42.41458" lon="0.12528">
        <ele>541.3</ele>
        <time>2016-07-24T11:15:26Z</time>
      </trkpt>
      <trkpt lat="42.41454" lon="0.12535">
        <ele>541.1</ele>
        <time>2016-07-24T11:15:27Z</time>
      </trkpt>
      <trkpt lat="42.4145" lon="0.12541">
        <ele>540.9</ele>
        <time>2016-07-24T11:15:28Z</time>
      </trkpt>
      <trkpt lat="42.41446" lon="0.12546">
        <ele>540.9</ele>
        <time>2016-07-24T11:15:29Z</time>
      </trkpt>
      <trkpt lat="42.41442" lon="0.12551">
        <ele>540.9</ele>
        <time>2016-07-24T11:15:30Z</time>
      </trkpt>
      <trkpt lat="42.41439" lon="0.12557">
        <ele>540.9</ele>
        <time>2016-07-24T11:15:31Z</time>
      </trkpt>
      <trkpt lat="42.41436" lon="0.12561">
        <ele>541</ele>
        <time>2016-07-24T11:15:32Z</time>
      </trkpt>
      <trkpt lat="42.41432" lon="0.12568">
        <ele>541</ele>
        <time>2016-07-24T11:15:33Z</time>
      </trkpt>
      <trkpt lat="42.41429" lon="0.12574">
        <ele>541</ele>
        <time>2016-07-24T11:15:34Z</time>
      </trkpt>
      <trkpt lat="42.41425" lon="0.1258">
        <ele>541.1</ele>
        <time>2016-07-24T11:15:35Z</time>
      </trkpt>
      <trkpt lat="42.41422" lon="0.12585">
        <ele>541.1</ele>
        <time>2016-07-24T11:15:36Z</time>
      </trkpt>
      <trkpt lat="42.41419" lon="0.12589">
        <ele>541.1</ele>
        <time>2016-07-24T11:15:37Z</time>
      </trkpt>
      <trkpt lat="42.41417" lon="0.12594">
        <ele>541.1</ele>
        <time>2016-07-24T11:15:38Z</time>
      </trkpt>
      <trkpt lat="42.41414" lon="0.126">
        <ele>541.2</ele>
        <time>2016-07-24T11:15:39Z</time>
      </trkpt>
      <trkpt lat="42.41412" lon="0.12606">
        <ele>541.2</ele>
        <time>2016-07-24T11:15:40Z</time>
      </trkpt>
      <trkpt lat="42.41408" lon="0.12611">
        <ele>541.2</ele>
        <time>2016-07-24T11:15:41Z</time>
      </trkpt>
      <trkpt lat="42.41404" lon="0.12615">
        <ele>541.2</ele>
        <time>2016-07-24T11:15:42Z</time>
      </trkpt>
      <trkpt lat="42.41402" lon="0.12621">
        <ele>541.3</ele>
        <time>2016-07-24T11:15:43Z</time>
      </trkpt>
      <trkpt lat="42.41399" lon="0.12626">
        <ele>541.3</ele>
        <time>2016-07-24T11:15:44Z</time>
      </trkpt>
      <trkpt lat="42.41396" lon="0.12631">
        <ele>541.3</ele>
        <time>2016-07-24T11:15:45Z</time>
      </trkpt>
      <trkpt lat="42.41393" lon="0.12635">
        <ele>541.3</ele>
        <time>2016-07-24T11:15:46Z</time>
      </trkpt>
      <trkpt lat="42.41389" lon="0.12641">
        <ele>541.3</ele>
        <time>2016-07-24T11:15:47Z</time>
      </trkpt>
      <trkpt lat="42.41386" lon="0.12646">
        <ele>541.4</ele>
        <time>2016-07-24T11:15:48Z</time>
      </trkpt>
      <trkpt lat="42.41383" lon="0.12651">
        <ele>541.4</ele>
        <time>2016-07-24T11:15:49Z</time>
      </trkpt>
      <trkpt lat="42.4138" lon="0.12657">
        <ele>541.4</ele>
        <time>2016-07-24T11:15:50Z</time>
      </trkpt>
      <trkpt lat="42.41377" lon="0.12663">
        <ele>541.5</ele>
        <time>2016-07-24T11:15:51Z</time>
      </trkpt>
      <trkpt lat="42.41373" lon="0.12668">
        <ele>541.6</ele>
        <time>2016-07-24T11:15:52Z</time>
      </trkpt>
      <trkpt lat="42.41369" lon="0.12674">
        <ele>541.9</ele>
        <time>2016-07-24T11:15:53Z</time>
      </trkpt>
      <trkpt lat="42.41367" lon="0.12679">
        <ele>542</ele>
        <time>2016-07-24T11:15:54Z</time>
      </trkpt>
      <trkpt lat="42.41364" lon="0.12682">
        <ele>542.2</ele>
        <time>2016-07-24T11:15:55Z</time>
      </trkpt>
      <trkpt lat="42.41363" lon="0.12687">
        <ele>542.3</ele>
        <time>2016-07-24T11:15:56Z</time>
      </trkpt>
      <trkpt lat="42.41361" lon="0.12691">
        <ele>542.4</ele>
        <time>2016-07-24T11:15:57Z</time>
      </trkpt>
      <trkpt lat="42.41363" lon="0.12699">
        <ele>542.4</ele>
        <time>2016-07-24T11:15:59Z</time>
      </trkpt>
      <trkpt lat="42.41365" lon="0.12705">
        <ele>542.3</ele>
        <time>2016-07-24T11:16:00Z</time>
      </trkpt>
      <trkpt lat="42.41367" lon="0.12714">
        <ele>542.4</ele>
        <time>2016-07-24T11:16:02Z</time>
      </trkpt>
      <trkpt lat="42.4137" lon="0.12721">
        <ele>542.3</ele>
        <time>2016-07-24T11:16:03Z</time>
      </trkpt>
      <trkpt lat="42.41373" lon="0.12726">
        <ele>542.3</ele>
        <time>2016-07-24T11:16:04Z</time>
      </trkpt>
      <trkpt lat="42.41374" lon="0.12735">
        <ele>542.4</ele>
        <time>2016-07-24T11:16:05Z</time>
      </trkpt>
      <trkpt lat="42.41375" lon="0.12741">
        <ele>542.4</ele>
        <time>2016-07-24T11:16:06Z</time>
      </trkpt>
      <trkpt lat="42.41377" lon="0.12747">
        <ele>542.4</ele>
        <time>2016-07-24T11:16:07Z</time>
      </trkpt>
      <trkpt lat="42.41381" lon="0.12754">
        <ele>542.4</ele>
        <time>2016-07-24T11:16:08Z</time>
      </trkpt>
      <trkpt lat="42.41383" lon="0.12761">
        <ele>542.4</ele>
        <time>2016-07-24T11:16:09Z</time>
      </trkpt>
      <trkpt lat="42.41385" lon="0.12769">
        <ele>542.5</ele>
        <time>2016-07-24T11:16:10Z</time>
      </trkpt>
      <trkpt lat="42.41385" lon="0.12775">
        <ele>542.5</ele>
        <time>2016-07-24T11:16:11Z</time>
      </trkpt>
      <trkpt lat="42.41386" lon="0.12783">
        <ele>542.5</ele>
        <time>2016-07-24T11:16:12Z</time>
      </trkpt>
      <trkpt lat="42.41387" lon="0.1279">
        <ele>542.5</ele>
        <time>2016-07-24T11:16:13Z</time>
      </trkpt>
      <trkpt lat="42.41388" lon="0.12797">
        <ele>542.5</ele>
        <time>2016-07-24T11:16:14Z</time>
      </trkpt>
      <trkpt lat="42.41389" lon="0.12804">
        <ele>542.4</ele>
        <time>2016-07-24T11:16:15Z</time>
      </trkpt>
      <trkpt lat="42.41391" lon="0.12812">
        <ele>542.3</ele>
        <time>2016-07-24T11:16:16Z</time>
      </trkpt>
      <trkpt lat="42.41393" lon="0.1282">
        <ele>542.1</ele>
        <time>2016-07-24T11:16:17Z</time>
      </trkpt>
      <trkpt lat="42.41394" lon="0.12828">
        <ele>541.9</ele>
        <time>2016-07-24T11:16:18Z</time>
      </trkpt>
      <trkpt lat="42.41395" lon="0.12836">
        <ele>541.8</ele>
        <time>2016-07-24T11:16:19Z</time>
      </trkpt>
      <trkpt lat="42.41397" lon="0.12842">
        <ele>541.6</ele>
        <time>2016-07-24T11:16:20Z</time>
      </trkpt>
      <trkpt lat="42.41398" lon="0.1285">
        <ele>541.4</ele>
        <time>2016-07-24T11:16:21Z</time>
      </trkpt>
      <trkpt lat="42.41399" lon="0.12858">
        <ele>541.2</ele>
        <time>2016-07-24T11:16:22Z</time>
      </trkpt>
      <trkpt lat="42.41401" lon="0.12864">
        <ele>541</ele>
        <time>2016-07-24T11:16:23Z</time>
      </trkpt>
      <trkpt lat="42.414" lon="0.12874">
        <ele>540.9</ele>
        <time>2016-07-24T11:16:24Z</time>
      </trkpt>
      <trkpt lat="42.414" lon="0.12881">
        <ele>541</ele>
        <time>2016-07-24T11:16:25Z</time>
      </trkpt>
      <trkpt lat="42.41402" lon="0.12889">
        <ele>541.1</ele>
        <time>2016-07-24T11:16:26Z</time>
      </trkpt>
      <trkpt lat="42.41403" lon="0.12897">
        <ele>541.2</ele>
        <time>2016-07-24T11:16:27Z</time>
      </trkpt>
      <trkpt lat="42.41405" lon="0.12903">
        <ele>541.1</ele>
        <time>2016-07-24T11:16:28Z</time>
      </trkpt>
      <trkpt lat="42.41407" lon="0.1291">
        <ele>541.1</ele>
        <time>2016-07-24T11:16:29Z</time>
      </trkpt>
      <trkpt lat="42.41408" lon="0.12918">
        <ele>541.2</ele>
        <time>2016-07-24T11:16:30Z</time>
      </trkpt>
      <trkpt lat="42.41409" lon="0.12924">
        <ele>541.2</ele>
        <time>2016-07-24T11:16:31Z</time>
      </trkpt>
      <trkpt lat="42.4141" lon="0.12933">
        <ele>541.2</ele>
        <time>2016-07-24T11:16:32Z</time>
      </trkpt>
      <trkpt lat="42.41412" lon="0.12942">
        <ele>541.2</ele>
        <time>2016-07-24T11:16:33Z</time>
      </trkpt>
      <trkpt lat="42.41413" lon="0.12949">
        <ele>541.2</ele>
        <time>2016-07-24T11:16:34Z</time>
      </trkpt>
      <trkpt lat="42.41414" lon="0.12957">
        <ele>541.3</ele>
        <time>2016-07-24T11:16:35Z</time>
      </trkpt>
      <trkpt lat="42.41415" lon="0.12965">
        <ele>541.2</ele>
        <time>2016-07-24T11:16:36Z</time>
      </trkpt>
      <trkpt lat="42.41417" lon="0.12973">
        <ele>541</ele>
        <time>2016-07-24T11:16:37Z</time>
      </trkpt>
      <trkpt lat="42.41419" lon="0.12979">
        <ele>540.8</ele>
        <time>2016-07-24T11:16:38Z</time>
      </trkpt>
      <trkpt lat="42.41419" lon="0.12988">
        <ele>540.7</ele>
        <time>2016-07-24T11:16:39Z</time>
      </trkpt>
      <trkpt lat="42.41421" lon="0.12996">
        <ele>540.5</ele>
        <time>2016-07-24T11:16:40Z</time>
      </trkpt>
      <trkpt lat="42.41422" lon="0.13003">
        <ele>540.3</ele>
        <time>2016-07-24T11:16:41Z</time>
      </trkpt>
      <trkpt lat="42.41424" lon="0.13011">
        <ele>540.1</ele>
        <time>2016-07-24T11:16:42Z</time>
      </trkpt>
      <trkpt lat="42.41425" lon="0.13019">
        <ele>540</ele>
        <time>2016-07-24T11:16:43Z</time>
      </trkpt>
      <trkpt lat="42.41427" lon="0.13026">
        <ele>539.8</ele>
        <time>2016-07-24T11:16:44Z</time>
      </trkpt>
      <trkpt lat="42.41428" lon="0.13035">
        <ele>539.7</ele>
        <time>2016-07-24T11:16:45Z</time>
      </trkpt>
      <trkpt lat="42.4143" lon="0.13043">
        <ele>539.4</ele>
        <time>2016-07-24T11:16:46Z</time>
      </trkpt>
      <trkpt lat="42.4143" lon="0.13051">
        <ele>539.1</ele>
        <time>2016-07-24T11:16:47Z</time>
      </trkpt>
      <trkpt lat="42.41432" lon="0.13059">
        <ele>538.7</ele>
        <time>2016-07-24T11:16:48Z</time>
      </trkpt>
      <trkpt lat="42.41435" lon="0.13066">
        <ele>538.4</ele>
        <time>2016-07-24T11:16:49Z</time>
      </trkpt>
      <trkpt lat="42.41436" lon="0.13072">
        <ele>538.1</ele>
        <time>2016-07-24T11:16:50Z</time>
      </trkpt>
      <trkpt lat="42.41438" lon="0.13078">
        <ele>537.8</ele>
        <time>2016-07-24T11:16:51Z</time>
      </trkpt>
      <trkpt lat="42.41439" lon="0.13086">
        <ele>537.6</ele>
        <time>2016-07-24T11:16:52Z</time>
      </trkpt>
      <trkpt lat="42.41441" lon="0.13093">
        <ele>537.3</ele>
        <time>2016-07-24T11:16:53Z</time>
      </trkpt>
      <trkpt lat="42.41443" lon="0.131">
        <ele>537</ele>
        <time>2016-07-24T11:16:54Z</time>
      </trkpt>
      <trkpt lat="42.41443" lon="0.13107">
        <ele>537</ele>
        <time>2016-07-24T11:16:55Z</time>
      </trkpt>
      <trkpt lat="42.41445" lon="0.13115">
        <ele>536.8</ele>
        <time>2016-07-24T11:16:56Z</time>
      </trkpt>
      <trkpt lat="42.41446" lon="0.13123">
        <ele>536.6</ele>
        <time>2016-07-24T11:16:57Z</time>
      </trkpt>
      <trkpt lat="42.41447" lon="0.13131">
        <ele>536.5</ele>
        <time>2016-07-24T11:16:58Z</time>
      </trkpt>
      <trkpt lat="42.41449" lon="0.13139">
        <ele>536.3</ele>
        <time>2016-07-24T11:16:59Z</time>
      </trkpt>
      <trkpt lat="42.4145" lon="0.13146">
        <ele>536.1</ele>
        <time>2016-07-24T11:17:00Z</time>
      </trkpt>
      <trkpt lat="42.41452" lon="0.13154">
        <ele>535.9</ele>
        <time>2016-07-24T11:17:01Z</time>
      </trkpt>
      <trkpt lat="42.41454" lon="0.1316">
        <ele>535.8</ele>
        <time>2016-07-24T11:17:02Z</time>
      </trkpt>
      <trkpt lat="42.41455" lon="0.13167">
        <ele>535.6</ele>
        <time>2016-07-24T11:17:03Z</time>
      </trkpt>
      <trkpt lat="42.41457" lon="0.13175">
        <ele>535.5</ele>
        <time>2016-07-24T11:17:04Z</time>
      </trkpt>
      <trkpt lat="42.4146" lon="0.13182">
        <ele>535.3</ele>
        <time>2016-07-24T11:17:05Z</time>
      </trkpt>
      <trkpt lat="42.41461" lon="0.13189">
        <ele>535.2</ele>
        <time>2016-07-24T11:17:06Z</time>
      </trkpt>
      <trkpt lat="42.41462" lon="0.13197">
        <ele>535.1</ele>
        <time>2016-07-24T11:17:07Z</time>
      </trkpt>
      <trkpt lat="42.41463" lon="0.13206">
        <ele>535</ele>
        <time>2016-07-24T11:17:08Z</time>
      </trkpt>
      <trkpt lat="42.41465" lon="0.13211">
        <ele>534.9</ele>
        <time>2016-07-24T11:17:09Z</time>
      </trkpt>
      <trkpt lat="42.41466" lon="0.13219">
        <ele>534.8</ele>
        <time>2016-07-24T11:17:10Z</time>
      </trkpt>
      <trkpt lat="42.41467" lon="0.13227">
        <ele>534.7</ele>
        <time>2016-07-24T11:17:11Z</time>
      </trkpt>
      <trkpt lat="42.41469" lon="0.13234">
        <ele>534.5</ele>
        <time>2016-07-24T11:17:12Z</time>
      </trkpt>
      <trkpt lat="42.4147" lon="0.13242">
        <ele>534.4</ele>
        <time>2016-07-24T11:17:13Z</time>
      </trkpt>
      <trkpt lat="42.4147" lon="0.1325">
        <ele>534.3</ele>
        <time>2016-07-24T11:17:14Z</time>
      </trkpt>
      <trkpt lat="42.4147" lon="0.13257">
        <ele>534.2</ele>
        <time>2016-07-24T11:17:15Z</time>
      </trkpt>
      <trkpt lat="42.4147" lon="0.13265">
        <ele>534.1</ele>
        <time>2016-07-24T11:17:16Z</time>
      </trkpt>
      <trkpt lat="42.41471" lon="0.13274">
        <ele>534</ele>
        <time>2016-07-24T11:17:17Z</time>
      </trkpt>
      <trkpt lat="42.4147" lon="0.1328">
        <ele>533.9</ele>
        <time>2016-07-24T11:17:18Z</time>
      </trkpt>
      <trkpt lat="42.4147" lon="0.13289">
        <ele>533.8</ele>
        <time>2016-07-24T11:17:19Z</time>
      </trkpt>
      <trkpt lat="42.41467" lon="0.13297">
        <ele>533.8</ele>
        <time>2016-07-24T11:17:20Z</time>
      </trkpt>
      <trkpt lat="42.41465" lon="0.13305">
        <ele>534</ele>
        <time>2016-07-24T11:17:21Z</time>
      </trkpt>
      <trkpt lat="42.41464" lon="0.13312">
        <ele>534.1</ele>
        <time>2016-07-24T11:17:22Z</time>
      </trkpt>
      <trkpt lat="42.41464" lon="0.13322">
        <ele>534.2</ele>
        <time>2016-07-24T11:17:23Z</time>
      </trkpt>
      <trkpt lat="42.41462" lon="0.13329">
        <ele>534.3</ele>
        <time>2016-07-24T11:17:24Z</time>
      </trkpt>
      <trkpt lat="42.4146" lon="0.13337">
        <ele>534.5</ele>
        <time>2016-07-24T11:17:25Z</time>
      </trkpt>
      <trkpt lat="42.41457" lon="0.13346">
        <ele>534.7</ele>
        <time>2016-07-24T11:17:26Z</time>
      </trkpt>
      <trkpt lat="42.41455" lon="0.13353">
        <ele>534.8</ele>
        <time>2016-07-24T11:17:27Z</time>
      </trkpt>
      <trkpt lat="42.41454" lon="0.1336">
        <ele>534.8</ele>
        <time>2016-07-24T11:17:28Z</time>
      </trkpt>
      <trkpt lat="42.41452" lon="0.13368">
        <ele>534.9</ele>
        <time>2016-07-24T11:17:29Z</time>
      </trkpt>
      <trkpt lat="42.41451" lon="0.13376">
        <ele>535</ele>
        <time>2016-07-24T11:17:30Z</time>
      </trkpt>
      <trkpt lat="42.4145" lon="0.13383">
        <ele>534.8</ele>
        <time>2016-07-24T11:17:31Z</time>
      </trkpt>
      <trkpt lat="42.41449" lon="0.13391">
        <ele>534.6</ele>
        <time>2016-07-24T11:17:32Z</time>
      </trkpt>
      <trkpt lat="42.41448" lon="0.13399">
        <ele>534.4</ele>
        <time>2016-07-24T11:17:33Z</time>
      </trkpt>
      <trkpt lat="42.41447" lon="0.13406">
        <ele>534.3</ele>
        <time>2016-07-24T11:17:34Z</time>
      </trkpt>
      <trkpt lat="42.41446" lon="0.13415">
        <ele>534</ele>
        <time>2016-07-24T11:17:35Z</time>
      </trkpt>
      <trkpt lat="42.41446" lon="0.13424">
        <ele>533.8</ele>
        <time>2016-07-24T11:17:36Z</time>
      </trkpt>
      <trkpt lat="42.41444" lon="0.13432">
        <ele>533.6</ele>
        <time>2016-07-24T11:17:37Z</time>
      </trkpt>
      <trkpt lat="42.41443" lon="0.13438">
        <ele>533.5</ele>
        <time>2016-07-24T11:17:38Z</time>
      </trkpt>
      <trkpt lat="42.41441" lon="0.13445">
        <ele>533.3</ele>
        <time>2016-07-24T11:17:39Z</time>
      </trkpt>
      <trkpt lat="42.41437" lon="0.13453">
        <ele>533.1</ele>
        <time>2016-07-24T11:17:40Z</time>
      </trkpt>
      <trkpt lat="42.41435" lon="0.13459">
        <ele>533</ele>
        <time>2016-07-24T11:17:41Z</time>
      </trkpt>
      <trkpt lat="42.41433" lon="0.13466">
        <ele>532.9</ele>
        <time>2016-07-24T11:17:42Z</time>
      </trkpt>
      <trkpt lat="42.41431" lon="0.13474">
        <ele>532.7</ele>
        <time>2016-07-24T11:17:43Z</time>
      </trkpt>
      <trkpt lat="42.41428" lon="0.13482">
        <ele>532.5</ele>
        <time>2016-07-24T11:17:44Z</time>
      </trkpt>
      <trkpt lat="42.41427" lon="0.13489">
        <ele>532.3</ele>
        <time>2016-07-24T11:17:45Z</time>
      </trkpt>
      <trkpt lat="42.41425" lon="0.13497">
        <ele>532.2</ele>
        <time>2016-07-24T11:17:46Z</time>
      </trkpt>
      <trkpt lat="42.41422" lon="0.13504">
        <ele>532</ele>
        <time>2016-07-24T11:17:47Z</time>
      </trkpt>
      <trkpt lat="42.4142" lon="0.1351">
        <ele>531.8</ele>
        <time>2016-07-24T11:17:48Z</time>
      </trkpt>
      <trkpt lat="42.41418" lon="0.13517">
        <ele>531.6</ele>
        <time>2016-07-24T11:17:49Z</time>
      </trkpt>
      <trkpt lat="42.41416" lon="0.13524">
        <ele>531.4</ele>
        <time>2016-07-24T11:17:50Z</time>
      </trkpt>
      <trkpt lat="42.41413" lon="0.1353">
        <ele>531.2</ele>
        <time>2016-07-24T11:17:51Z</time>
      </trkpt>
      <trkpt lat="42.4141" lon="0.13536">
        <ele>531</ele>
        <time>2016-07-24T11:17:52Z</time>
      </trkpt>
      <trkpt lat="42.41407" lon="0.13541">
        <ele>530.8</ele>
        <time>2016-07-24T11:17:53Z</time>
      </trkpt>
      <trkpt lat="42.41403" lon="0.13547">
        <ele>530.7</ele>
        <time>2016-07-24T11:17:54Z</time>
      </trkpt>
      <trkpt lat="42.414" lon="0.13554">
        <ele>530.7</ele>
        <time>2016-07-24T11:17:55Z</time>
      </trkpt>
      <trkpt lat="42.41398" lon="0.13561">
        <ele>530.7</ele>
        <time>2016-07-24T11:17:56Z</time>
      </trkpt>
      <trkpt lat="42.41395" lon="0.13568">
        <ele>530.6</ele>
        <time>2016-07-24T11:17:57Z</time>
      </trkpt>
      <trkpt lat="42.41391" lon="0.13573">
        <ele>530.6</ele>
        <time>2016-07-24T11:17:58Z</time>
      </trkpt>
      <trkpt lat="42.41388" lon="0.13579">
        <ele>530.6</ele>
        <time>2016-07-24T11:17:59Z</time>
      </trkpt>
      <trkpt lat="42.41384" lon="0.13585">
        <ele>530.6</ele>
        <time>2016-07-24T11:18:00Z</time>
      </trkpt>
      <trkpt lat="42.41381" lon="0.13592">
        <ele>530.7</ele>
        <time>2016-07-24T11:18:01Z</time>
      </trkpt>
      <trkpt lat="42.41379" lon="0.13597">
        <ele>530.7</ele>
        <time>2016-07-24T11:18:02Z</time>
      </trkpt>
      <trkpt lat="42.41374" lon="0.13603">
        <ele>530.8</ele>
        <time>2016-07-24T11:18:03Z</time>
      </trkpt>
      <trkpt lat="42.4137" lon="0.13609">
        <ele>531</ele>
        <time>2016-07-24T11:18:04Z</time>
      </trkpt>
      <trkpt lat="42.41368" lon="0.13615">
        <ele>531.1</ele>
        <time>2016-07-24T11:18:05Z</time>
      </trkpt>
      <trkpt lat="42.41364" lon="0.13621">
        <ele>531.2</ele>
        <time>2016-07-24T11:18:06Z</time>
      </trkpt>
      <trkpt lat="42.4136" lon="0.13628">
        <ele>531.3</ele>
        <time>2016-07-24T11:18:07Z</time>
      </trkpt>
      <trkpt lat="42.41357" lon="0.13634">
        <ele>531.4</ele>
        <time>2016-07-24T11:18:08Z</time>
      </trkpt>
      <trkpt lat="42.41354" lon="0.1364">
        <ele>531.4</ele>
        <time>2016-07-24T11:18:09Z</time>
      </trkpt>
      <trkpt lat="42.4135" lon="0.13647">
        <ele>531.4</ele>
        <time>2016-07-24T11:18:10Z</time>
      </trkpt>
      <trkpt lat="42.41346" lon="0.13652">
        <ele>531.5</ele>
        <time>2016-07-24T11:18:11Z</time>
      </trkpt>
      <trkpt lat="42.41344" lon="0.13657">
        <ele>531.5</ele>
        <time>2016-07-24T11:18:12Z</time>
      </trkpt>
      <trkpt lat="42.4134" lon="0.13661">
        <ele>531.5</ele>
        <time>2016-07-24T11:18:13Z</time>
      </trkpt>
      <trkpt lat="42.41336" lon="0.13668">
        <ele>531.4</ele>
        <time>2016-07-24T11:18:14Z</time>
      </trkpt>
      <trkpt lat="42.41333" lon="0.13675">
        <ele>531.4</ele>
        <time>2016-07-24T11:18:15Z</time>
      </trkpt>
      <trkpt lat="42.4133" lon="0.13682">
        <ele>531.3</ele>
        <time>2016-07-24T11:18:16Z</time>
      </trkpt>
      <trkpt lat="42.41327" lon="0.13688">
        <ele>531.3</ele>
        <time>2016-07-24T11:18:17Z</time>
      </trkpt>
      <trkpt lat="42.41323" lon="0.13696">
        <ele>531.2</ele>
        <time>2016-07-24T11:18:18Z</time>
      </trkpt>
      <trkpt lat="42.41318" lon="0.13702">
        <ele>531.1</ele>
        <time>2016-07-24T11:18:19Z</time>
      </trkpt>
      <trkpt lat="42.41315" lon="0.13708">
        <ele>531</ele>
        <time>2016-07-24T11:18:20Z</time>
      </trkpt>
      <trkpt lat="42.41311" lon="0.13715">
        <ele>531</ele>
        <time>2016-07-24T11:18:21Z</time>
      </trkpt>
      <trkpt lat="42.41308" lon="0.13722">
        <ele>531.1</ele>
        <time>2016-07-24T11:18:22Z</time>
      </trkpt>
      <trkpt lat="42.41306" lon="0.13729">
        <ele>531.2</ele>
        <time>2016-07-24T11:18:23Z</time>
      </trkpt>
      <trkpt lat="42.41303" lon="0.13734">
        <ele>531.2</ele>
        <time>2016-07-24T11:18:24Z</time>
      </trkpt>
      <trkpt lat="42.413" lon="0.13741">
        <ele>531.3</ele>
        <time>2016-07-24T11:18:25Z</time>
      </trkpt>
      <trkpt lat="42.41298" lon="0.13748">
        <ele>531.4</ele>
        <time>2016-07-24T11:18:26Z</time>
      </trkpt>
      <trkpt lat="42.41295" lon="0.13754">
        <ele>531.5</ele>
        <time>2016-07-24T11:18:27Z</time>
      </trkpt>
      <trkpt lat="42.41292" lon="0.1376">
        <ele>531.6</ele>
        <time>2016-07-24T11:18:28Z</time>
      </trkpt>
      <trkpt lat="42.4129" lon="0.13767">
        <ele>531.9</ele>
        <time>2016-07-24T11:18:29Z</time>
      </trkpt>
      <trkpt lat="42.41288" lon="0.13775">
        <ele>532.2</ele>
        <time>2016-07-24T11:18:30Z</time>
      </trkpt>
      <trkpt lat="42.41286" lon="0.13782">
        <ele>532.4</ele>
        <time>2016-07-24T11:18:31Z</time>
      </trkpt>
      <trkpt lat="42.41286" lon="0.13791">
        <ele>532.4</ele>
        <time>2016-07-24T11:18:32Z</time>
      </trkpt>
      <trkpt lat="42.41285" lon="0.13798">
        <ele>532.5</ele>
        <time>2016-07-24T11:18:33Z</time>
      </trkpt>
      <trkpt lat="42.41282" lon="0.13804">
        <ele>532.7</ele>
        <time>2016-07-24T11:18:34Z</time>
      </trkpt>
      <trkpt lat="42.4128" lon="0.13812">
        <ele>532.7</ele>
        <time>2016-07-24T11:18:35Z</time>
      </trkpt>
      <trkpt lat="42.41279" lon="0.13819">
        <ele>532.8</ele>
        <time>2016-07-24T11:18:36Z</time>
      </trkpt>
      <trkpt lat="42.41277" lon="0.13827">
        <ele>532.8</ele>
        <time>2016-07-24T11:18:37Z</time>
      </trkpt>
      <trkpt lat="42.41276" lon="0.13835">
        <ele>532.8</ele>
        <time>2016-07-24T11:18:38Z</time>
      </trkpt>
      <trkpt lat="42.41275" lon="0.13844">
        <ele>532.8</ele>
        <time>2016-07-24T11:18:39Z</time>
      </trkpt>
      <trkpt lat="42.41276" lon="0.13851">
        <ele>532.6</ele>
        <time>2016-07-24T11:18:40Z</time>
      </trkpt>
      <trkpt lat="42.41274" lon="0.13856">
        <ele>532.7</ele>
        <time>2016-07-24T11:18:41Z</time>
      </trkpt>
      <trkpt lat="42.41274" lon="0.13863">
        <ele>532.6</ele>
        <time>2016-07-24T11:18:42Z</time>
      </trkpt>
      <trkpt lat="42.41274" lon="0.13869">
        <ele>532.6</ele>
        <time>2016-07-24T11:18:43Z</time>
      </trkpt>
      <trkpt lat="42.41273" lon="0.13876">
        <ele>532.5</ele>
        <time>2016-07-24T11:18:44Z</time>
      </trkpt>
      <trkpt lat="42.41273" lon="0.13884">
        <ele>532.4</ele>
        <time>2016-07-24T11:18:45Z</time>
      </trkpt>
      <trkpt lat="42.41274" lon="0.13892">
        <ele>532.1</ele>
        <time>2016-07-24T11:18:46Z</time>
      </trkpt>
      <trkpt lat="42.41274" lon="0.13899">
        <ele>531.9</ele>
        <time>2016-07-24T11:18:47Z</time>
      </trkpt>
      <trkpt lat="42.41275" lon="0.13907">
        <ele>531.7</ele>
        <time>2016-07-24T11:18:48Z</time>
      </trkpt>
      <trkpt lat="42.41274" lon="0.13914">
        <ele>531.6</ele>
        <time>2016-07-24T11:18:49Z</time>
      </trkpt>
      <trkpt lat="42.41274" lon="0.13921">
        <ele>531.5</ele>
        <time>2016-07-24T11:18:50Z</time>
      </trkpt>
      <trkpt lat="42.41274" lon="0.13928">
        <ele>531.3</ele>
        <time>2016-07-24T11:18:51Z</time>
      </trkpt>
      <trkpt lat="42.41273" lon="0.13935">
        <ele>531.3</ele>
        <time>2016-07-24T11:18:52Z</time>
      </trkpt>
      <trkpt lat="42.41271" lon="0.13942">
        <ele>531.3</ele>
        <time>2016-07-24T11:18:53Z</time>
      </trkpt>
      <trkpt lat="42.41269" lon="0.13947">
        <ele>531.4</ele>
        <time>2016-07-24T11:18:54Z</time>
      </trkpt>
      <trkpt lat="42.41267" lon="0.13951">
        <ele>531.5</ele>
        <time>2016-07-24T11:18:55Z</time>
      </trkpt>
      <trkpt lat="42.41266" lon="0.13955">
        <ele>531.5</ele>
        <time>2016-07-24T11:18:56Z</time>
      </trkpt>
      <trkpt lat="42.41263" lon="0.13959">
        <ele>531.8</ele>
        <time>2016-07-24T11:18:57Z</time>
      </trkpt>
      <trkpt lat="42.41259" lon="0.13962">
        <ele>532.3</ele>
        <time>2016-07-24T11:18:58Z</time>
      </trkpt>
      <trkpt lat="42.41254" lon="0.13965">
        <ele>532.8</ele>
        <time>2016-07-24T11:18:59Z</time>
      </trkpt>
      <trkpt lat="42.41251" lon="0.13967">
        <ele>533.1</ele>
        <time>2016-07-24T11:19:00Z</time>
      </trkpt>
      <trkpt lat="42.41248" lon="0.13968">
        <ele>533.4</ele>
        <time>2016-07-24T11:19:02Z</time>
      </trkpt>
      <trkpt lat="42.41246" lon="0.1397">
        <ele>533.7</ele>
        <time>2016-07-24T11:19:03Z</time>
      </trkpt>
      <trkpt lat="42.41243" lon="0.13973">
        <ele>533.9</ele>
        <time>2016-07-24T11:19:05Z</time>
      </trkpt>
      <trkpt lat="42.4124" lon="0.13975">
        <ele>534.3</ele>
        <time>2016-07-24T11:19:07Z</time>
      </trkpt>
      <trkpt lat="42.41237" lon="0.13977">
        <ele>534.5</ele>
        <time>2016-07-24T11:19:08Z</time>
      </trkpt>
      <trkpt lat="42.41234" lon="0.13979">
        <ele>534.9</ele>
        <time>2016-07-24T11:19:09Z</time>
      </trkpt>
      <trkpt lat="42.4123" lon="0.13981">
        <ele>535.2</ele>
        <time>2016-07-24T11:19:10Z</time>
      </trkpt>
      <trkpt lat="42.41226" lon="0.13983">
        <ele>535.6</ele>
        <time>2016-07-24T11:19:11Z</time>
      </trkpt>
      <trkpt lat="42.41222" lon="0.13986">
        <ele>535.9</ele>
        <time>2016-07-24T11:19:12Z</time>
      </trkpt>
      <trkpt lat="42.41219" lon="0.1399">
        <ele>536.2</ele>
        <time>2016-07-24T11:19:13Z</time>
      </trkpt>
      <trkpt lat="42.41217" lon="0.13994">
        <ele>536.3</ele>
        <time>2016-07-24T11:19:14Z</time>
      </trkpt>
      <trkpt lat="42.41216" lon="0.13998">
        <ele>536.4</ele>
        <time>2016-07-24T11:19:15Z</time>
      </trkpt>
      <trkpt lat="42.41216" lon="0.14004">
        <ele>536.5</ele>
        <time>2016-07-24T11:19:16Z</time>
      </trkpt>
      <trkpt lat="42.41215" lon="0.14009">
        <ele>536.6</ele>
        <time>2016-07-24T11:19:17Z</time>
      </trkpt>
      <trkpt lat="42.41215" lon="0.14014">
        <ele>536.5</ele>
        <time>2016-07-24T11:19:18Z</time>
      </trkpt>
      <trkpt lat="42.41217" lon="0.14019">
        <ele>536.5</ele>
        <time>2016-07-24T11:19:19Z</time>
      </trkpt>
      <trkpt lat="42.41219" lon="0.14024">
        <ele>536.4</ele>
        <time>2016-07-24T11:19:20Z</time>
      </trkpt>
      <trkpt lat="42.41222" lon="0.14027">
        <ele>536.2</ele>
        <time>2016-07-24T11:19:21Z</time>
      </trkpt>
      <trkpt lat="42.41224" lon="0.14031">
        <ele>536.1</ele>
        <time>2016-07-24T11:19:22Z</time>
      </trkpt>
      <trkpt lat="42.41226" lon="0.14035">
        <ele>536.1</ele>
        <time>2016-07-24T11:19:23Z</time>
      </trkpt>
      <trkpt lat="42.41228" lon="0.14038">
        <ele>536</ele>
        <time>2016-07-24T11:19:24Z</time>
      </trkpt>
      <trkpt lat="42.4123" lon="0.1404">
        <ele>536</ele>
        <time>2016-07-24T11:19:25Z</time>
      </trkpt>
      <trkpt lat="42.41232" lon="0.14043">
        <ele>536.1</ele>
        <time>2016-07-24T11:19:26Z</time>
      </trkpt>
      <trkpt lat="42.41235" lon="0.14046">
        <ele>536.3</ele>
        <time>2016-07-24T11:19:27Z</time>
      </trkpt>
      <trkpt lat="42.41238" lon="0.14048">
        <ele>536.3</ele>
        <time>2016-07-24T11:19:28Z</time>
      </trkpt>
      <trkpt lat="42.41242" lon="0.14049">
        <ele>536.3</ele>
        <time>2016-07-24T11:19:29Z</time>
      </trkpt>
      <trkpt lat="42.41246" lon="0.1405">
        <ele>536.2</ele>
        <time>2016-07-24T11:19:30Z</time>
      </trkpt>
      <trkpt lat="42.4125" lon="0.14051">
        <ele>536</ele>
        <time>2016-07-24T11:19:31Z</time>
      </trkpt>
      <trkpt lat="42.41255" lon="0.14051">
        <ele>535.7</ele>
        <time>2016-07-24T11:19:32Z</time>
      </trkpt>
      <trkpt lat="42.41259" lon="0.14051">
        <ele>535.4</ele>
        <time>2016-07-24T11:19:33Z</time>
      </trkpt>
      <trkpt lat="42.41264" lon="0.1405">
        <ele>535.1</ele>
        <time>2016-07-24T11:19:34Z</time>
      </trkpt>
      <trkpt lat="42.41268" lon="0.14049">
        <ele>534.8</ele>
        <time>2016-07-24T11:19:35Z</time>
      </trkpt>
      <trkpt lat="42.41273" lon="0.14046">
        <ele>534.2</ele>
        <time>2016-07-24T11:19:36Z</time>
      </trkpt>
      <trkpt lat="42.41279" lon="0.14045">
        <ele>533.8</ele>
        <time>2016-07-24T11:19:37Z</time>
      </trkpt>
      <trkpt lat="42.41284" lon="0.14044">
        <ele>533.5</ele>
        <time>2016-07-24T11:19:38Z</time>
      </trkpt>
      <trkpt lat="42.41289" lon="0.14043">
        <ele>533.2</ele>
        <time>2016-07-24T11:19:39Z</time>
      </trkpt>
      <trkpt lat="42.41293" lon="0.14044">
        <ele>533</ele>
        <time>2016-07-24T11:19:40Z</time>
      </trkpt>
      <trkpt lat="42.41297" lon="0.14044">
        <ele>532.8</ele>
        <time>2016-07-24T11:19:41Z</time>
      </trkpt>
      <trkpt lat="42.41301" lon="0.14041">
        <ele>532.4</ele>
        <time>2016-07-24T11:19:42Z</time>
      </trkpt>
      <trkpt lat="42.41306" lon="0.14041">
        <ele>532.1</ele>
        <time>2016-07-24T11:19:43Z</time>
      </trkpt>
      <trkpt lat="42.4131" lon="0.14041">
        <ele>531.9</ele>
        <time>2016-07-24T11:19:44Z</time>
      </trkpt>
      <trkpt lat="42.41315" lon="0.14041">
        <ele>531.6</ele>
        <time>2016-07-24T11:19:45Z</time>
      </trkpt>
      <trkpt lat="42.41319" lon="0.1404">
        <ele>531.3</ele>
        <time>2016-07-24T11:19:46Z</time>
      </trkpt>
      <trkpt lat="42.41323" lon="0.1404">
        <ele>531.1</ele>
        <time>2016-07-24T11:19:47Z</time>
      </trkpt>
      <trkpt lat="42.41326" lon="0.14039">
        <ele>530.9</ele>
        <time>2016-07-24T11:19:48Z</time>
      </trkpt>
      <trkpt lat="42.41331" lon="0.14039">
        <ele>530.6</ele>
        <time>2016-07-24T11:19:49Z</time>
      </trkpt>
      <trkpt lat="42.41335" lon="0.14039">
        <ele>530.3</ele>
        <time>2016-07-24T11:19:50Z</time>
      </trkpt>
      <trkpt lat="42.4134" lon="0.14037">
        <ele>530</ele>
        <time>2016-07-24T11:19:51Z</time>
      </trkpt>
      <trkpt lat="42.41344" lon="0.14037">
        <ele>529.7</ele>
        <time>2016-07-24T11:19:52Z</time>
      </trkpt>
      <trkpt lat="42.41348" lon="0.14037">
        <ele>529.5</ele>
        <time>2016-07-24T11:19:53Z</time>
      </trkpt>
      <trkpt lat="42.41353" lon="0.14038">
        <ele>529.3</ele>
        <time>2016-07-24T11:19:54Z</time>
      </trkpt>
      <trkpt lat="42.41356" lon="0.14037">
        <ele>529</ele>
        <time>2016-07-24T11:19:55Z</time>
      </trkpt>
      <trkpt lat="42.41361" lon="0.14036">
        <ele>528.8</ele>
        <time>2016-07-24T11:19:56Z</time>
      </trkpt>
      <trkpt lat="42.41365" lon="0.14036">
        <ele>528.5</ele>
        <time>2016-07-24T11:19:57Z</time>
      </trkpt>
      <trkpt lat="42.4137" lon="0.14035">
        <ele>528.2</ele>
        <time>2016-07-24T11:19:58Z</time>
      </trkpt>
      <trkpt lat="42.41375" lon="0.14034">
        <ele>527.9</ele>
        <time>2016-07-24T11:19:59Z</time>
      </trkpt>
      <trkpt lat="42.4138" lon="0.14035">
        <ele>528.2</ele>
        <time>2016-07-24T11:20:00Z</time>
      </trkpt>
      <trkpt lat="42.41384" lon="0.14034">
        <ele>528.5</ele>
        <time>2016-07-24T11:20:01Z</time>
      </trkpt>
      <trkpt lat="42.41389" lon="0.14036">
        <ele>528.9</ele>
        <time>2016-07-24T11:20:02Z</time>
      </trkpt>
      <trkpt lat="42.41392" lon="0.14035">
        <ele>529.1</ele>
        <time>2016-07-24T11:20:03Z</time>
      </trkpt>
      <trkpt lat="42.41397" lon="0.14034">
        <ele>529.4</ele>
        <time>2016-07-24T11:20:04Z</time>
      </trkpt>
      <trkpt lat="42.41402" lon="0.14032">
        <ele>529.7</ele>
        <time>2016-07-24T11:20:05Z</time>
      </trkpt>
      <trkpt lat="42.41407" lon="0.14031">
        <ele>530</ele>
        <time>2016-07-24T11:20:06Z</time>
      </trkpt>
      <trkpt lat="42.41412" lon="0.14029">
        <ele>530.3</ele>
        <time>2016-07-24T11:20:08Z</time>
      </trkpt>
      <trkpt lat="42.41416" lon="0.14029">
        <ele>530.6</ele>
        <time>2016-07-24T11:20:09Z</time>
      </trkpt>
      <trkpt lat="42.41422" lon="0.14029">
        <ele>531</ele>
        <time>2016-07-24T11:20:10Z</time>
      </trkpt>
      <trkpt lat="42.41428" lon="0.14028">
        <ele>531.3</ele>
        <time>2016-07-24T11:20:11Z</time>
      </trkpt>
      <trkpt lat="42.41432" lon="0.14028">
        <ele>531.6</ele>
        <time>2016-07-24T11:20:12Z</time>
      </trkpt>
      <trkpt lat="42.41436" lon="0.14028">
        <ele>531.9</ele>
        <time>2016-07-24T11:20:13Z</time>
      </trkpt>
      <trkpt lat="42.41439" lon="0.14028">
        <ele>532.1</ele>
        <time>2016-07-24T11:20:14Z</time>
      </trkpt>
      <trkpt lat="42.41442" lon="0.14028">
        <ele>532.3</ele>
        <time>2016-07-24T11:20:15Z</time>
      </trkpt>
      <trkpt lat="42.41447" lon="0.14027">
        <ele>532.6</ele>
        <time>2016-07-24T11:20:17Z</time>
      </trkpt>
      <trkpt lat="42.41451" lon="0.14025">
        <ele>532.8</ele>
        <time>2016-07-24T11:20:19Z</time>
      </trkpt>
      <trkpt lat="42.41454" lon="0.14026">
        <ele>533</ele>
        <time>2016-07-24T11:20:21Z</time>
      </trkpt>
      <trkpt lat="42.4146" lon="0.14028">
        <ele>533.6</ele>
        <time>2016-07-24T11:20:23Z</time>
      </trkpt>
      <trkpt lat="42.41463" lon="0.14031">
        <ele>534.4</ele>
        <time>2016-07-24T11:20:24Z</time>
      </trkpt>
      <trkpt lat="42.41465" lon="0.14035">
        <ele>535.2</ele>
        <time>2016-07-24T11:20:25Z</time>
      </trkpt>
      <trkpt lat="42.41467" lon="0.14041">
        <ele>535.8</ele>
        <time>2016-07-24T11:20:26Z</time>
      </trkpt>
      <trkpt lat="42.41464" lon="0.14053">
        <ele>535.3</ele>
        <time>2016-07-24T11:20:27Z</time>
      </trkpt>
      <trkpt lat="42.41465" lon="0.1406">
        <ele>535.6</ele>
        <time>2016-07-24T11:20:28Z</time>
      </trkpt>
      <trkpt lat="42.41469" lon="0.14066">
        <ele>536.2</ele>
        <time>2016-07-24T11:20:29Z</time>
      </trkpt>
      <trkpt lat="42.4147" lon="0.14072">
        <ele>536.3</ele>
        <time>2016-07-24T11:20:30Z</time>
      </trkpt>
      <trkpt lat="42.41471" lon="0.1408">
        <ele>536.5</ele>
        <time>2016-07-24T11:20:31Z</time>
      </trkpt>
      <trkpt lat="42.41473" lon="0.14088">
        <ele>536.6</ele>
        <time>2016-07-24T11:20:32Z</time>
      </trkpt>
      <trkpt lat="42.41474" lon="0.14095">
        <ele>536.6</ele>
        <time>2016-07-24T11:20:33Z</time>
      </trkpt>
      <trkpt lat="42.41472" lon="0.14103">
        <ele>536.4</ele>
        <time>2016-07-24T11:20:34Z</time>
      </trkpt>
      <trkpt lat="42.41474" lon="0.1411">
        <ele>536.4</ele>
        <time>2016-07-24T11:20:35Z</time>
      </trkpt>
      <trkpt lat="42.41475" lon="0.14116">
        <ele>536.4</ele>
        <time>2016-07-24T11:20:36Z</time>
      </trkpt>
      <trkpt lat="42.41476" lon="0.14123">
        <ele>536.2</ele>
        <time>2016-07-24T11:20:37Z</time>
      </trkpt>
      <trkpt lat="42.41478" lon="0.14131">
        <ele>535.8</ele>
        <time>2016-07-24T11:20:38Z</time>
      </trkpt>
      <trkpt lat="42.41478" lon="0.14138">
        <ele>535.2</ele>
        <time>2016-07-24T11:20:39Z</time>
      </trkpt>
      <trkpt lat="42.41479" lon="0.14145">
        <ele>534.7</ele>
        <time>2016-07-24T11:20:40Z</time>
      </trkpt>
      <trkpt lat="42.4148" lon="0.14152">
        <ele>534.1</ele>
        <time>2016-07-24T11:20:41Z</time>
      </trkpt>
      <trkpt lat="42.41482" lon="0.14159">
        <ele>533.5</ele>
        <time>2016-07-24T11:20:42Z</time>
      </trkpt>
      <trkpt lat="42.41482" lon="0.14167">
        <ele>532.9</ele>
        <time>2016-07-24T11:20:43Z</time>
      </trkpt>
      <trkpt lat="42.41483" lon="0.14174">
        <ele>532.4</ele>
        <time>2016-07-24T11:20:44Z</time>
      </trkpt>
      <trkpt lat="42.41484" lon="0.14179">
        <ele>531.9</ele>
        <time>2016-07-24T11:20:45Z</time>
      </trkpt>
      <trkpt lat="42.41485" lon="0.14186">
        <ele>531.5</ele>
        <time>2016-07-24T11:20:46Z</time>
      </trkpt>
      <trkpt lat="42.41486" lon="0.1419">
        <ele>531.1</ele>
        <time>2016-07-24T11:20:47Z</time>
      </trkpt>
      <trkpt lat="42.41487" lon="0.14196">
        <ele>530.6</ele>
        <time>2016-07-24T11:20:48Z</time>
      </trkpt>
      <trkpt lat="42.41487" lon="0.14203">
        <ele>530.1</ele>
        <time>2016-07-24T11:20:49Z</time>
      </trkpt>
      <trkpt lat="42.41488" lon="0.14207">
        <ele>529.8</ele>
        <time>2016-07-24T11:20:50Z</time>
      </trkpt>
      <trkpt lat="42.41488" lon="0.14212">
        <ele>529.6</ele>
        <time>2016-07-24T11:20:51Z</time>
      </trkpt>
      <trkpt lat="42.41488" lon="0.14216">
        <ele>529.5</ele>
        <time>2016-07-24T11:20:52Z</time>
      </trkpt>
      <trkpt lat="42.41489" lon="0.14221">
        <ele>529.3</ele>
        <time>2016-07-24T11:20:53Z</time>
      </trkpt>
      <trkpt lat="42.41489" lon="0.14227">
        <ele>529.1</ele>
        <time>2016-07-24T11:20:54Z</time>
      </trkpt>
      <trkpt lat="42.41491" lon="0.14233">
        <ele>528.8</ele>
        <time>2016-07-24T11:20:55Z</time>
      </trkpt>
      <trkpt lat="42.41491" lon="0.14239">
        <ele>528.6</ele>
        <time>2016-07-24T11:20:56Z</time>
      </trkpt>
      <trkpt lat="42.41492" lon="0.14245">
        <ele>528.4</ele>
        <time>2016-07-24T11:20:57Z</time>
      </trkpt>
      <trkpt lat="42.41493" lon="0.14251">
        <ele>528.2</ele>
        <time>2016-07-24T11:20:58Z</time>
      </trkpt>
      <trkpt lat="42.41494" lon="0.14257">
        <ele>527.9</ele>
        <time>2016-07-24T11:20:59Z</time>
      </trkpt>
      <trkpt lat="42.41495" lon="0.14263">
        <ele>527.7</ele>
        <time>2016-07-24T11:21:00Z</time>
      </trkpt>
      <trkpt lat="42.41496" lon="0.14268">
        <ele>527.5</ele>
        <time>2016-07-24T11:21:01Z</time>
      </trkpt>
      <trkpt lat="42.41497" lon="0.14272">
        <ele>527.4</ele>
        <time>2016-07-24T11:21:02Z</time>
      </trkpt>
      <trkpt lat="42.41498" lon="0.14278">
        <ele>527.1</ele>
        <time>2016-07-24T11:21:03Z</time>
      </trkpt>
      <trkpt lat="42.41499" lon="0.14284">
        <ele>526.8</ele>
        <time>2016-07-24T11:21:04Z</time>
      </trkpt>
      <trkpt lat="42.415" lon="0.14289">
        <ele>526.6</ele>
        <time>2016-07-24T11:21:05Z</time>
      </trkpt>
      <trkpt lat="42.41501" lon="0.14295">
        <ele>526.5</ele>
        <time>2016-07-24T11:21:06Z</time>
      </trkpt>
      <trkpt lat="42.41502" lon="0.14301">
        <ele>526.4</ele>
        <time>2016-07-24T11:21:07Z</time>
      </trkpt>
      <trkpt lat="42.41503" lon="0.14306">
        <ele>526.4</ele>
        <time>2016-07-24T11:21:08Z</time>
      </trkpt>
      <trkpt lat="42.41504" lon="0.14312">
        <ele>526.3</ele>
        <time>2016-07-24T11:21:09Z</time>
      </trkpt>
      <trkpt lat="42.41505" lon="0.14318">
        <ele>526.3</ele>
        <time>2016-07-24T11:21:10Z</time>
      </trkpt>
      <trkpt lat="42.41505" lon="0.14324">
        <ele>526.2</ele>
        <time>2016-07-24T11:21:11Z</time>
      </trkpt>
      <trkpt lat="42.41507" lon="0.14329">
        <ele>526.2</ele>
        <time>2016-07-24T11:21:12Z</time>
      </trkpt>
      <trkpt lat="42.41508" lon="0.14335">
        <ele>526.1</ele>
        <time>2016-07-24T11:21:13Z</time>
      </trkpt>
      <trkpt lat="42.41509" lon="0.14341">
        <ele>526</ele>
        <time>2016-07-24T11:21:14Z</time>
      </trkpt>
      <trkpt lat="42.41509" lon="0.14346">
        <ele>526</ele>
        <time>2016-07-24T11:21:15Z</time>
      </trkpt>
      <trkpt lat="42.4151" lon="0.14351">
        <ele>525.9</ele>
        <time>2016-07-24T11:21:16Z</time>
      </trkpt>
      <trkpt lat="42.4151" lon="0.14357">
        <ele>525.9</ele>
        <time>2016-07-24T11:21:17Z</time>
      </trkpt>
      <trkpt lat="42.41511" lon="0.14362">
        <ele>525.8</ele>
        <time>2016-07-24T11:21:18Z</time>
      </trkpt>
      <trkpt lat="42.41512" lon="0.14368">
        <ele>525.8</ele>
        <time>2016-07-24T11:21:19Z</time>
      </trkpt>
      <trkpt lat="42.41513" lon="0.14373">
        <ele>525.7</ele>
        <time>2016-07-24T11:21:20Z</time>
      </trkpt>
      <trkpt lat="42.41515" lon="0.14378">
        <ele>525.8</ele>
        <time>2016-07-24T11:21:21Z</time>
      </trkpt>
      <trkpt lat="42.41516" lon="0.14384">
        <ele>526</ele>
        <time>2016-07-24T11:21:22Z</time>
      </trkpt>
      <trkpt lat="42.41516" lon="0.1439">
        <ele>526.3</ele>
        <time>2016-07-24T11:21:23Z</time>
      </trkpt>
      <trkpt lat="42.41516" lon="0.14395">
        <ele>526.5</ele>
        <time>2016-07-24T11:21:24Z</time>
      </trkpt>
      <trkpt lat="42.41516" lon="0.14401">
        <ele>526.8</ele>
        <time>2016-07-24T11:21:25Z</time>
      </trkpt>
      <trkpt lat="42.41515" lon="0.14407">
        <ele>527.1</ele>
        <time>2016-07-24T11:21:26Z</time>
      </trkpt>
      <trkpt lat="42.41514" lon="0.14413">
        <ele>527.3</ele>
        <time>2016-07-24T11:21:27Z</time>
      </trkpt>
      <trkpt lat="42.41511" lon="0.1442">
        <ele>527.7</ele>
        <time>2016-07-24T11:21:28Z</time>
      </trkpt>
      <trkpt lat="42.4151" lon="0.14425">
        <ele>527.8</ele>
        <time>2016-07-24T11:21:29Z</time>
      </trkpt>
      <trkpt lat="42.41508" lon="0.1443">
        <ele>528.1</ele>
        <time>2016-07-24T11:21:30Z</time>
      </trkpt>
      <trkpt lat="42.41505" lon="0.14435">
        <ele>528.2</ele>
        <time>2016-07-24T11:21:31Z</time>
      </trkpt>
      <trkpt lat="42.415" lon="0.14437">
        <ele>528.2</ele>
        <time>2016-07-24T11:21:32Z</time>
      </trkpt>
      <trkpt lat="42.41496" lon="0.14437">
        <ele>528.2</ele>
        <time>2016-07-24T11:21:33Z</time>
      </trkpt>
      <trkpt lat="42.41492" lon="0.14434">
        <ele>528.1</ele>
        <time>2016-07-24T11:21:34Z</time>
      </trkpt>
      <trkpt lat="42.41489" lon="0.1443">
        <ele>527.9</ele>
        <time>2016-07-24T11:21:35Z</time>
      </trkpt>
      <trkpt lat="42.41487" lon="0.14426">
        <ele>527.8</ele>
        <time>2016-07-24T11:21:36Z</time>
      </trkpt>
      <trkpt lat="42.41486" lon="0.14421">
        <ele>527.6</ele>
        <time>2016-07-24T11:21:37Z</time>
      </trkpt>
      <trkpt lat="42.41485" lon="0.14417">
        <ele>527.5</ele>
        <time>2016-07-24T11:21:38Z</time>
      </trkpt>
      <trkpt lat="42.41484" lon="0.14414">
        <ele>527.4</ele>
        <time>2016-07-24T11:21:39Z</time>
      </trkpt>
      <trkpt lat="42.41484" lon="0.14409">
        <ele>527.3</ele>
        <time>2016-07-24T11:21:40Z</time>
      </trkpt>
      <trkpt lat="42.41483" lon="0.14405">
        <ele>527.2</ele>
        <time>2016-07-24T11:21:41Z</time>
      </trkpt>
      <trkpt lat="42.41482" lon="0.14402">
        <ele>527.1</ele>
        <time>2016-07-24T11:21:42Z</time>
      </trkpt>
      <trkpt lat="42.41479" lon="0.144">
        <ele>527.1</ele>
        <time>2016-07-24T11:21:46Z</time>
      </trkpt>
      <trkpt lat="42.41477" lon="0.14398">
        <ele>527.1</ele>
        <time>2016-07-24T11:21:53Z</time>
      </trkpt>
      <trkpt lat="42.41475" lon="0.14396">
        <ele>527.1</ele>
        <time>2016-07-24T11:22:03Z</time>
      </trkpt>
      <trkpt lat="42.41472" lon="0.14394">
        <ele>527</ele>
        <time>2016-07-24T11:22:08Z</time>
      </trkpt>
      <trkpt lat="42.41473" lon="0.14398">
        <ele>527.1</ele>
        <time>2016-07-24T11:22:18Z</time>
      </trkpt>
    </trkseg>
  </trk>
</gpx>